<?xml version="1.0" encoding="UTF-8"?>
<gpx version="1.1" creator="https://www.youtrack.es" xsi:schemaLocation="http://www.topografix.com/GPX/1/1 http://www.topografix.com/GPX/1/1/gpx.xsd http://www.garmin.com/xmlschemas/GpxExtensions/v3 http://www.garmin.com/xmlschemas/GpxExtensionsv3.xsd http://www.garmin.com/xmlschemas/TrackPointExtension/v1 http://www.garmin.com/xmlschemas/TrackPointExtensionv1.xsd" xmlns:gpxtpx="http://www.garmin.com/xmlschemas/TrackPointExtension/v1" xmlns:gpxx="http://www.garmin.com/xmlschemas/GpxExtensions/v3" xmlns:xsi="http://www.w3.org/2001/XMLSchema-instance">
  <metadata>
    <link href="https://www.youtrack.es">
      <text>YouTrack.es</text>
    </link>
    <time>2026-05-09T01:57:57Z</time>
  </metadata>
  <trk>
    <src>https://www.youtrack.es</src>
    <link href="https://www.youtrack.es/ruta/3449-west">
      <text>YouTrack.es</text>
    </link>
    <trkseg>
      <trkpt lat="34.052352" lon="-118.243573">
        <ele>88.759</ele>
        <time>2018-12-27T13:30:57Z</time>
      </trkpt>
      <trkpt lat="34.052450" lon="-118.243720">
        <ele>89.203</ele>
        <time>2018-12-27T13:31:17Z</time>
      </trkpt>
      <trkpt lat="34.052670" lon="-118.244050">
        <ele>90.023</ele>
        <time>2018-12-27T13:31:37Z</time>
      </trkpt>
      <trkpt lat="34.052850" lon="-118.244340">
        <ele>90.408</ele>
        <time>2018-12-27T13:31:57Z</time>
      </trkpt>
      <trkpt lat="34.052940" lon="-118.244470">
        <ele>90.688</ele>
        <time>2018-12-27T13:32:17Z</time>
      </trkpt>
      <trkpt lat="34.053010" lon="-118.244580">
        <ele>90.926</ele>
        <time>2018-12-27T13:32:37Z</time>
      </trkpt>
      <trkpt lat="34.053280" lon="-118.244990">
        <ele>91.441</ele>
        <time>2018-12-27T13:32:57Z</time>
      </trkpt>
      <trkpt lat="34.053360" lon="-118.245100">
        <ele>91.480</ele>
        <time>2018-12-27T13:33:17Z</time>
      </trkpt>
      <trkpt lat="34.053640" lon="-118.245540">
        <ele>91.654</ele>
        <time>2018-12-27T13:33:37Z</time>
      </trkpt>
      <trkpt lat="34.053641" lon="-118.245542">
        <ele>91.697</ele>
        <time>2018-12-27T13:33:57Z</time>
      </trkpt>
      <trkpt lat="34.053720" lon="-118.245470">
        <ele>91.881</ele>
        <time>2018-12-27T13:34:17Z</time>
      </trkpt>
      <trkpt lat="34.054120" lon="-118.245090">
        <ele>94.594</ele>
        <time>2018-12-27T13:34:37Z</time>
      </trkpt>
      <trkpt lat="34.054360" lon="-118.244870">
        <ele>96.329</ele>
        <time>2018-12-27T13:34:57Z</time>
      </trkpt>
      <trkpt lat="34.054550" lon="-118.244690">
        <ele>97.200</ele>
        <time>2018-12-27T13:35:17Z</time>
      </trkpt>
      <trkpt lat="34.054760" lon="-118.244490">
        <ele>98.120</ele>
        <time>2018-12-27T13:35:37Z</time>
      </trkpt>
      <trkpt lat="34.054820" lon="-118.244440">
        <ele>98.508</ele>
        <time>2018-12-27T13:35:57Z</time>
      </trkpt>
      <trkpt lat="34.054980" lon="-118.244290">
        <ele>100.075</ele>
        <time>2018-12-27T13:36:17Z</time>
      </trkpt>
      <trkpt lat="34.055010" lon="-118.244270">
        <ele>100.263</ele>
        <time>2018-12-27T13:36:37Z</time>
      </trkpt>
      <trkpt lat="34.055030" lon="-118.244240">
        <ele>100.398</ele>
        <time>2018-12-27T13:36:57Z</time>
      </trkpt>
      <trkpt lat="34.055160" lon="-118.244120">
        <ele>101.177</ele>
        <time>2018-12-27T13:37:17Z</time>
      </trkpt>
      <trkpt lat="34.055730" lon="-118.243590">
        <ele>103.371</ele>
        <time>2018-12-27T13:37:37Z</time>
      </trkpt>
      <trkpt lat="34.056250" lon="-118.243100">
        <ele>103.474</ele>
        <time>2018-12-27T13:37:57Z</time>
      </trkpt>
      <trkpt lat="34.056520" lon="-118.242850">
        <ele>103.388</ele>
        <time>2018-12-27T13:38:17Z</time>
      </trkpt>
      <trkpt lat="34.056790" lon="-118.242600">
        <ele>98.961</ele>
        <time>2018-12-27T13:38:37Z</time>
      </trkpt>
      <trkpt lat="34.056800" lon="-118.242590">
        <ele>98.846</ele>
        <time>2018-12-27T13:38:57Z</time>
      </trkpt>
      <trkpt lat="34.056810" lon="-118.242570">
        <ele>98.788</ele>
        <time>2018-12-27T13:39:17Z</time>
      </trkpt>
      <trkpt lat="34.056980" lon="-118.242420">
        <ele>97.516</ele>
        <time>2018-12-27T13:39:37Z</time>
      </trkpt>
      <trkpt lat="34.057150" lon="-118.242260">
        <ele>97.608</ele>
        <time>2018-12-27T13:39:57Z</time>
      </trkpt>
      <trkpt lat="34.057210" lon="-118.242200">
        <ele>98.217</ele>
        <time>2018-12-27T13:40:17Z</time>
      </trkpt>
      <trkpt lat="34.057280" lon="-118.242140">
        <ele>98.865</ele>
        <time>2018-12-27T13:40:37Z</time>
      </trkpt>
      <trkpt lat="34.057360" lon="-118.242060">
        <ele>99.580</ele>
        <time>2018-12-27T13:40:57Z</time>
      </trkpt>
      <trkpt lat="34.057420" lon="-118.241990">
        <ele>100.589</ele>
        <time>2018-12-27T13:41:17Z</time>
      </trkpt>
      <trkpt lat="34.057500" lon="-118.241890">
        <ele>101.263</ele>
        <time>2018-12-27T13:41:37Z</time>
      </trkpt>
      <trkpt lat="34.057550" lon="-118.241810">
        <ele>101.016</ele>
        <time>2018-12-27T13:41:57Z</time>
      </trkpt>
      <trkpt lat="34.057620" lon="-118.241670">
        <ele>100.280</ele>
        <time>2018-12-27T13:42:17Z</time>
      </trkpt>
      <trkpt lat="34.057750" lon="-118.241400">
        <ele>98.313</ele>
        <time>2018-12-27T13:42:37Z</time>
      </trkpt>
      <trkpt lat="34.057748" lon="-118.241402">
        <ele>98.424</ele>
        <time>2018-12-27T13:42:57Z</time>
      </trkpt>
      <trkpt lat="34.057590" lon="-118.241300">
        <ele>97.404</ele>
        <time>2018-12-27T13:43:17Z</time>
      </trkpt>
      <trkpt lat="34.057550" lon="-118.241280">
        <ele>97.314</ele>
        <time>2018-12-27T13:43:37Z</time>
      </trkpt>
      <trkpt lat="34.057510" lon="-118.241260">
        <ele>97.108</ele>
        <time>2018-12-27T13:43:57Z</time>
      </trkpt>
      <trkpt lat="34.057490" lon="-118.241250">
        <ele>97.145</ele>
        <time>2018-12-27T13:44:17Z</time>
      </trkpt>
      <trkpt lat="34.057460" lon="-118.241250">
        <ele>97.043</ele>
        <time>2018-12-27T13:44:37Z</time>
      </trkpt>
      <trkpt lat="34.057440" lon="-118.241250">
        <ele>97.018</ele>
        <time>2018-12-27T13:44:57Z</time>
      </trkpt>
      <trkpt lat="34.057420" lon="-118.241240">
        <ele>96.927</ele>
        <time>2018-12-27T13:45:17Z</time>
      </trkpt>
      <trkpt lat="34.057390" lon="-118.241250">
        <ele>97.051</ele>
        <time>2018-12-27T13:45:37Z</time>
      </trkpt>
      <trkpt lat="34.057350" lon="-118.241250">
        <ele>96.924</ele>
        <time>2018-12-27T13:45:57Z</time>
      </trkpt>
      <trkpt lat="34.057320" lon="-118.241270">
        <ele>96.998</ele>
        <time>2018-12-27T13:46:17Z</time>
      </trkpt>
      <trkpt lat="34.057260" lon="-118.241300">
        <ele>96.831</ele>
        <time>2018-12-27T13:46:37Z</time>
      </trkpt>
      <trkpt lat="34.057230" lon="-118.241320">
        <ele>96.866</ele>
        <time>2018-12-27T13:46:57Z</time>
      </trkpt>
      <trkpt lat="34.057200" lon="-118.241350">
        <ele>96.829</ele>
        <time>2018-12-27T13:47:17Z</time>
      </trkpt>
      <trkpt lat="34.057170" lon="-118.241380">
        <ele>96.821</ele>
        <time>2018-12-27T13:47:37Z</time>
      </trkpt>
      <trkpt lat="34.057150" lon="-118.241410">
        <ele>96.808</ele>
        <time>2018-12-27T13:47:57Z</time>
      </trkpt>
      <trkpt lat="34.057120" lon="-118.241460">
        <ele>96.999</ele>
        <time>2018-12-27T13:48:17Z</time>
      </trkpt>
      <trkpt lat="34.057110" lon="-118.241500">
        <ele>97.037</ele>
        <time>2018-12-27T13:48:37Z</time>
      </trkpt>
      <trkpt lat="34.057100" lon="-118.241530">
        <ele>97.132</ele>
        <time>2018-12-27T13:48:57Z</time>
      </trkpt>
      <trkpt lat="34.057090" lon="-118.241560">
        <ele>97.111</ele>
        <time>2018-12-27T13:49:17Z</time>
      </trkpt>
      <trkpt lat="34.057080" lon="-118.241610">
        <ele>97.115</ele>
        <time>2018-12-27T13:49:37Z</time>
      </trkpt>
      <trkpt lat="34.057080" lon="-118.241670">
        <ele>97.238</ele>
        <time>2018-12-27T13:49:57Z</time>
      </trkpt>
      <trkpt lat="34.057080" lon="-118.241730">
        <ele>97.252</ele>
        <time>2018-12-27T13:50:17Z</time>
      </trkpt>
      <trkpt lat="34.057110" lon="-118.241860">
        <ele>97.595</ele>
        <time>2018-12-27T13:50:37Z</time>
      </trkpt>
      <trkpt lat="34.057150" lon="-118.242000">
        <ele>97.822</ele>
        <time>2018-12-27T13:50:57Z</time>
      </trkpt>
      <trkpt lat="34.057200" lon="-118.242160">
        <ele>98.162</ele>
        <time>2018-12-27T13:51:17Z</time>
      </trkpt>
      <trkpt lat="34.057240" lon="-118.242270">
        <ele>98.308</ele>
        <time>2018-12-27T13:51:37Z</time>
      </trkpt>
      <trkpt lat="34.057290" lon="-118.242400">
        <ele>98.308</ele>
        <time>2018-12-27T13:51:57Z</time>
      </trkpt>
      <trkpt lat="34.057330" lon="-118.242520">
        <ele>97.895</ele>
        <time>2018-12-27T13:52:17Z</time>
      </trkpt>
      <trkpt lat="34.057370" lon="-118.242610">
        <ele>97.743</ele>
        <time>2018-12-27T13:52:37Z</time>
      </trkpt>
      <trkpt lat="34.057400" lon="-118.242660">
        <ele>99.088</ele>
        <time>2018-12-27T13:52:57Z</time>
      </trkpt>
      <trkpt lat="34.057470" lon="-118.242790">
        <ele>100.417</ele>
        <time>2018-12-27T13:53:17Z</time>
      </trkpt>
      <trkpt lat="34.057580" lon="-118.242980">
        <ele>99.211</ele>
        <time>2018-12-27T13:53:37Z</time>
      </trkpt>
      <trkpt lat="34.057680" lon="-118.243160">
        <ele>99.584</ele>
        <time>2018-12-27T13:53:57Z</time>
      </trkpt>
      <trkpt lat="34.057780" lon="-118.243330">
        <ele>102.138</ele>
        <time>2018-12-27T13:54:17Z</time>
      </trkpt>
      <trkpt lat="34.057890" lon="-118.243510">
        <ele>101.831</ele>
        <time>2018-12-27T13:54:37Z</time>
      </trkpt>
      <trkpt lat="34.057960" lon="-118.243630">
        <ele>102.523</ele>
        <time>2018-12-27T13:54:57Z</time>
      </trkpt>
      <trkpt lat="34.058040" lon="-118.243790">
        <ele>102.683</ele>
        <time>2018-12-27T13:55:17Z</time>
      </trkpt>
      <trkpt lat="34.058090" lon="-118.243900">
        <ele>102.511</ele>
        <time>2018-12-27T13:55:37Z</time>
      </trkpt>
      <trkpt lat="34.058110" lon="-118.243960">
        <ele>102.008</ele>
        <time>2018-12-27T13:55:57Z</time>
      </trkpt>
      <trkpt lat="34.058150" lon="-118.244080">
        <ele>101.825</ele>
        <time>2018-12-27T13:56:17Z</time>
      </trkpt>
      <trkpt lat="34.058300" lon="-118.244290">
        <ele>104.343</ele>
        <time>2018-12-27T13:56:37Z</time>
      </trkpt>
      <trkpt lat="34.058580" lon="-118.244700">
        <ele>107.018</ele>
        <time>2018-12-27T13:56:57Z</time>
      </trkpt>
      <trkpt lat="34.058800" lon="-118.244980">
        <ele>107.057</ele>
        <time>2018-12-27T13:57:17Z</time>
      </trkpt>
      <trkpt lat="34.058940" lon="-118.245150">
        <ele>107.071</ele>
        <time>2018-12-27T13:57:37Z</time>
      </trkpt>
      <trkpt lat="34.059070" lon="-118.245310">
        <ele>108.394</ele>
        <time>2018-12-27T13:57:57Z</time>
      </trkpt>
      <trkpt lat="34.059550" lon="-118.245900">
        <ele>115.088</ele>
        <time>2018-12-27T13:58:17Z</time>
      </trkpt>
      <trkpt lat="34.059650" lon="-118.246010">
        <ele>114.721</ele>
        <time>2018-12-27T13:58:37Z</time>
      </trkpt>
      <trkpt lat="34.059810" lon="-118.246180">
        <ele>114.177</ele>
        <time>2018-12-27T13:58:57Z</time>
      </trkpt>
      <trkpt lat="34.060020" lon="-118.246390">
        <ele>113.161</ele>
        <time>2018-12-27T13:59:17Z</time>
      </trkpt>
      <trkpt lat="34.060220" lon="-118.246580">
        <ele>111.827</ele>
        <time>2018-12-27T13:59:37Z</time>
      </trkpt>
      <trkpt lat="34.060420" lon="-118.246760">
        <ele>111.008</ele>
        <time>2018-12-27T13:59:57Z</time>
      </trkpt>
      <trkpt lat="34.060530" lon="-118.246860">
        <ele>111.360</ele>
        <time>2018-12-27T14:00:17Z</time>
      </trkpt>
      <trkpt lat="34.060640" lon="-118.246950">
        <ele>110.328</ele>
        <time>2018-12-27T14:00:37Z</time>
      </trkpt>
      <trkpt lat="34.060750" lon="-118.247040">
        <ele>107.823</ele>
        <time>2018-12-27T14:00:57Z</time>
      </trkpt>
      <trkpt lat="34.060990" lon="-118.247250">
        <ele>104.732</ele>
        <time>2018-12-27T14:01:17Z</time>
      </trkpt>
      <trkpt lat="34.061350" lon="-118.247560">
        <ele>117.366</ele>
        <time>2018-12-27T14:01:37Z</time>
      </trkpt>
      <trkpt lat="34.061710" lon="-118.247870">
        <ele>117.429</ele>
        <time>2018-12-27T14:01:57Z</time>
      </trkpt>
      <trkpt lat="34.061930" lon="-118.248060">
        <ele>117.453</ele>
        <time>2018-12-27T14:02:17Z</time>
      </trkpt>
      <trkpt lat="34.062440" lon="-118.248500">
        <ele>113.666</ele>
        <time>2018-12-27T14:02:37Z</time>
      </trkpt>
      <trkpt lat="34.062470" lon="-118.248520">
        <ele>112.434</ele>
        <time>2018-12-27T14:02:57Z</time>
      </trkpt>
      <trkpt lat="34.062680" lon="-118.248700">
        <ele>104.355</ele>
        <time>2018-12-27T14:03:17Z</time>
      </trkpt>
      <trkpt lat="34.062890" lon="-118.248880">
        <ele>106.210</ele>
        <time>2018-12-27T14:03:37Z</time>
      </trkpt>
      <trkpt lat="34.063000" lon="-118.248970">
        <ele>109.108</ele>
        <time>2018-12-27T14:03:57Z</time>
      </trkpt>
      <trkpt lat="34.063120" lon="-118.249080">
        <ele>111.116</ele>
        <time>2018-12-27T14:04:17Z</time>
      </trkpt>
      <trkpt lat="34.063310" lon="-118.249250">
        <ele>110.734</ele>
        <time>2018-12-27T14:04:37Z</time>
      </trkpt>
      <trkpt lat="34.063440" lon="-118.249370">
        <ele>111.269</ele>
        <time>2018-12-27T14:04:57Z</time>
      </trkpt>
      <trkpt lat="34.063540" lon="-118.249470">
        <ele>110.968</ele>
        <time>2018-12-27T14:05:17Z</time>
      </trkpt>
      <trkpt lat="34.063630" lon="-118.249550">
        <ele>111.082</ele>
        <time>2018-12-27T14:05:37Z</time>
      </trkpt>
      <trkpt lat="34.063760" lon="-118.249700">
        <ele>111.375</ele>
        <time>2018-12-27T14:05:57Z</time>
      </trkpt>
      <trkpt lat="34.063850" lon="-118.249810">
        <ele>111.499</ele>
        <time>2018-12-27T14:06:17Z</time>
      </trkpt>
      <trkpt lat="34.063980" lon="-118.249970">
        <ele>111.512</ele>
        <time>2018-12-27T14:06:37Z</time>
      </trkpt>
      <trkpt lat="34.064090" lon="-118.250110">
        <ele>111.385</ele>
        <time>2018-12-27T14:06:57Z</time>
      </trkpt>
      <trkpt lat="34.064210" lon="-118.250270">
        <ele>111.689</ele>
        <time>2018-12-27T14:07:17Z</time>
      </trkpt>
      <trkpt lat="34.064410" lon="-118.250560">
        <ele>115.317</ele>
        <time>2018-12-27T14:07:37Z</time>
      </trkpt>
      <trkpt lat="34.064560" lon="-118.250770">
        <ele>117.008</ele>
        <time>2018-12-27T14:07:57Z</time>
      </trkpt>
      <trkpt lat="34.064600" lon="-118.250820">
        <ele>117.061</ele>
        <time>2018-12-27T14:08:17Z</time>
      </trkpt>
      <trkpt lat="34.064850" lon="-118.251170">
        <ele>117.979</ele>
        <time>2018-12-27T14:08:37Z</time>
      </trkpt>
      <trkpt lat="34.064950" lon="-118.251300">
        <ele>118.754</ele>
        <time>2018-12-27T14:08:57Z</time>
      </trkpt>
      <trkpt lat="34.065070" lon="-118.251470">
        <ele>120.063</ele>
        <time>2018-12-27T14:09:17Z</time>
      </trkpt>
      <trkpt lat="34.065210" lon="-118.251640">
        <ele>122.067</ele>
        <time>2018-12-27T14:09:37Z</time>
      </trkpt>
      <trkpt lat="34.065310" lon="-118.251790">
        <ele>123.430</ele>
        <time>2018-12-27T14:09:57Z</time>
      </trkpt>
      <trkpt lat="34.065500" lon="-118.252040">
        <ele>125.284</ele>
        <time>2018-12-27T14:10:17Z</time>
      </trkpt>
      <trkpt lat="34.065830" lon="-118.252510">
        <ele>127.837</ele>
        <time>2018-12-27T14:10:37Z</time>
      </trkpt>
      <trkpt lat="34.066360" lon="-118.253240">
        <ele>127.864</ele>
        <time>2018-12-27T14:10:57Z</time>
      </trkpt>
      <trkpt lat="34.066710" lon="-118.253730">
        <ele>127.606</ele>
        <time>2018-12-27T14:11:17Z</time>
      </trkpt>
      <trkpt lat="34.066880" lon="-118.253980">
        <ele>127.516</ele>
        <time>2018-12-27T14:11:37Z</time>
      </trkpt>
      <trkpt lat="34.066960" lon="-118.254110">
        <ele>127.408</ele>
        <time>2018-12-27T14:11:57Z</time>
      </trkpt>
      <trkpt lat="34.067230" lon="-118.254570">
        <ele>127.579</ele>
        <time>2018-12-27T14:12:17Z</time>
      </trkpt>
      <trkpt lat="34.067450" lon="-118.254970">
        <ele>128.087</ele>
        <time>2018-12-27T14:12:37Z</time>
      </trkpt>
      <trkpt lat="34.067530" lon="-118.255120">
        <ele>128.082</ele>
        <time>2018-12-27T14:12:57Z</time>
      </trkpt>
      <trkpt lat="34.067650" lon="-118.255380">
        <ele>127.981</ele>
        <time>2018-12-27T14:13:17Z</time>
      </trkpt>
      <trkpt lat="34.067770" lon="-118.255630">
        <ele>128.345</ele>
        <time>2018-12-27T14:13:37Z</time>
      </trkpt>
      <trkpt lat="34.067950" lon="-118.256050">
        <ele>127.628</ele>
        <time>2018-12-27T14:13:57Z</time>
      </trkpt>
      <trkpt lat="34.068050" lon="-118.256310">
        <ele>128.082</ele>
        <time>2018-12-27T14:14:17Z</time>
      </trkpt>
      <trkpt lat="34.068110" lon="-118.256470">
        <ele>127.865</ele>
        <time>2018-12-27T14:14:37Z</time>
      </trkpt>
      <trkpt lat="34.068270" lon="-118.256900">
        <ele>128.753</ele>
        <time>2018-12-27T14:14:57Z</time>
      </trkpt>
      <trkpt lat="34.068410" lon="-118.257320">
        <ele>127.704</ele>
        <time>2018-12-27T14:15:17Z</time>
      </trkpt>
      <trkpt lat="34.068620" lon="-118.257910">
        <ele>125.314</ele>
        <time>2018-12-27T14:15:37Z</time>
      </trkpt>
      <trkpt lat="34.068760" lon="-118.258310">
        <ele>123.908</ele>
        <time>2018-12-27T14:15:57Z</time>
      </trkpt>
      <trkpt lat="34.069130" lon="-118.259350">
        <ele>119.458</ele>
        <time>2018-12-27T14:16:17Z</time>
      </trkpt>
      <trkpt lat="34.069410" lon="-118.260150">
        <ele>118.296</ele>
        <time>2018-12-27T14:16:37Z</time>
      </trkpt>
      <trkpt lat="34.069500" lon="-118.260400">
        <ele>117.991</ele>
        <time>2018-12-27T14:16:57Z</time>
      </trkpt>
      <trkpt lat="34.069690" lon="-118.260950">
        <ele>116.910</ele>
        <time>2018-12-27T14:17:17Z</time>
      </trkpt>
      <trkpt lat="34.069710" lon="-118.260980">
        <ele>116.944</ele>
        <time>2018-12-27T14:17:37Z</time>
      </trkpt>
      <trkpt lat="34.069910" lon="-118.261550">
        <ele>123.147</ele>
        <time>2018-12-27T14:17:57Z</time>
      </trkpt>
      <trkpt lat="34.070110" lon="-118.262120">
        <ele>127.111</ele>
        <time>2018-12-27T14:18:17Z</time>
      </trkpt>
      <trkpt lat="34.070250" lon="-118.262520">
        <ele>127.574</ele>
        <time>2018-12-27T14:18:37Z</time>
      </trkpt>
      <trkpt lat="34.070450" lon="-118.263090">
        <ele>126.889</ele>
        <time>2018-12-27T14:18:57Z</time>
      </trkpt>
      <trkpt lat="34.070620" lon="-118.263520">
        <ele>126.706</ele>
        <time>2018-12-27T14:19:17Z</time>
      </trkpt>
      <trkpt lat="34.070870" lon="-118.264120">
        <ele>126.926</ele>
        <time>2018-12-27T14:19:37Z</time>
      </trkpt>
      <trkpt lat="34.071080" lon="-118.264590">
        <ele>127.808</ele>
        <time>2018-12-27T14:19:57Z</time>
      </trkpt>
      <trkpt lat="34.071290" lon="-118.265050">
        <ele>125.131</ele>
        <time>2018-12-27T14:20:17Z</time>
      </trkpt>
      <trkpt lat="34.071470" lon="-118.265450">
        <ele>124.159</ele>
        <time>2018-12-27T14:20:37Z</time>
      </trkpt>
      <trkpt lat="34.071650" lon="-118.265850">
        <ele>123.034</ele>
        <time>2018-12-27T14:20:57Z</time>
      </trkpt>
      <trkpt lat="34.071830" lon="-118.266260">
        <ele>123.683</ele>
        <time>2018-12-27T14:21:17Z</time>
      </trkpt>
      <trkpt lat="34.072080" lon="-118.266830">
        <ele>116.467</ele>
        <time>2018-12-27T14:21:37Z</time>
      </trkpt>
      <trkpt lat="34.072250" lon="-118.267220">
        <ele>123.810</ele>
        <time>2018-12-27T14:21:57Z</time>
      </trkpt>
      <trkpt lat="34.072480" lon="-118.267760">
        <ele>121.144</ele>
        <time>2018-12-27T14:22:17Z</time>
      </trkpt>
      <trkpt lat="34.072810" lon="-118.268550">
        <ele>121.337</ele>
        <time>2018-12-27T14:22:37Z</time>
      </trkpt>
      <trkpt lat="34.072980" lon="-118.268960">
        <ele>122.369</ele>
        <time>2018-12-27T14:22:57Z</time>
      </trkpt>
      <trkpt lat="34.072990" lon="-118.268980">
        <ele>122.304</ele>
        <time>2018-12-27T14:23:17Z</time>
      </trkpt>
      <trkpt lat="34.073010" lon="-118.269030">
        <ele>122.224</ele>
        <time>2018-12-27T14:23:37Z</time>
      </trkpt>
      <trkpt lat="34.073030" lon="-118.269090">
        <ele>122.208</ele>
        <time>2018-12-27T14:23:57Z</time>
      </trkpt>
      <trkpt lat="34.073080" lon="-118.269210">
        <ele>122.149</ele>
        <time>2018-12-27T14:24:17Z</time>
      </trkpt>
      <trkpt lat="34.073450" lon="-118.270100">
        <ele>116.887</ele>
        <time>2018-12-27T14:24:37Z</time>
      </trkpt>
      <trkpt lat="34.073670" lon="-118.270570">
        <ele>115.782</ele>
        <time>2018-12-27T14:24:57Z</time>
      </trkpt>
      <trkpt lat="34.073990" lon="-118.271210">
        <ele>114.071</ele>
        <time>2018-12-27T14:25:17Z</time>
      </trkpt>
      <trkpt lat="34.074190" lon="-118.271600">
        <ele>111.545</ele>
        <time>2018-12-27T14:25:37Z</time>
      </trkpt>
      <trkpt lat="34.074370" lon="-118.271960">
        <ele>110.638</ele>
        <time>2018-12-27T14:25:57Z</time>
      </trkpt>
      <trkpt lat="34.074580" lon="-118.272460">
        <ele>110.522</ele>
        <time>2018-12-27T14:26:17Z</time>
      </trkpt>
      <trkpt lat="34.074810" lon="-118.273020">
        <ele>110.465</ele>
        <time>2018-12-27T14:26:37Z</time>
      </trkpt>
      <trkpt lat="34.074980" lon="-118.273490">
        <ele>109.961</ele>
        <time>2018-12-27T14:26:57Z</time>
      </trkpt>
      <trkpt lat="34.075110" lon="-118.273840">
        <ele>110.021</ele>
        <time>2018-12-27T14:27:17Z</time>
      </trkpt>
      <trkpt lat="34.075170" lon="-118.274020">
        <ele>110.013</ele>
        <time>2018-12-27T14:27:37Z</time>
      </trkpt>
      <trkpt lat="34.075240" lon="-118.274240">
        <ele>110.108</ele>
        <time>2018-12-27T14:27:57Z</time>
      </trkpt>
      <trkpt lat="34.075270" lon="-118.274350">
        <ele>110.139</ele>
        <time>2018-12-27T14:28:17Z</time>
      </trkpt>
      <trkpt lat="34.075540" lon="-118.275270">
        <ele>107.187</ele>
        <time>2018-12-27T14:28:37Z</time>
      </trkpt>
      <trkpt lat="34.075710" lon="-118.275890">
        <ele>103.942</ele>
        <time>2018-12-27T14:28:57Z</time>
      </trkpt>
      <trkpt lat="34.075860" lon="-118.276370">
        <ele>103.781</ele>
        <time>2018-12-27T14:29:17Z</time>
      </trkpt>
      <trkpt lat="34.076130" lon="-118.277330">
        <ele>99.845</ele>
        <time>2018-12-27T14:29:37Z</time>
      </trkpt>
      <trkpt lat="34.076380" lon="-118.278230">
        <ele>99.028</ele>
        <time>2018-12-27T14:29:57Z</time>
      </trkpt>
      <trkpt lat="34.076480" lon="-118.278540">
        <ele>99.522</ele>
        <time>2018-12-27T14:30:17Z</time>
      </trkpt>
      <trkpt lat="34.076610" lon="-118.279010">
        <ele>93.455</ele>
        <time>2018-12-27T14:30:37Z</time>
      </trkpt>
      <trkpt lat="34.076630" lon="-118.279060">
        <ele>92.976</ele>
        <time>2018-12-27T14:30:57Z</time>
      </trkpt>
      <trkpt lat="34.076640" lon="-118.279120">
        <ele>92.890</ele>
        <time>2018-12-27T14:31:17Z</time>
      </trkpt>
      <trkpt lat="34.076710" lon="-118.279360">
        <ele>92.719</ele>
        <time>2018-12-27T14:31:37Z</time>
      </trkpt>
      <trkpt lat="34.076760" lon="-118.279530">
        <ele>93.208</ele>
        <time>2018-12-27T14:31:57Z</time>
      </trkpt>
      <trkpt lat="34.076810" lon="-118.279700">
        <ele>93.520</ele>
        <time>2018-12-27T14:32:17Z</time>
      </trkpt>
      <trkpt lat="34.076860" lon="-118.279900">
        <ele>93.738</ele>
        <time>2018-12-27T14:32:37Z</time>
      </trkpt>
      <trkpt lat="34.076990" lon="-118.280440">
        <ele>92.853</ele>
        <time>2018-12-27T14:32:57Z</time>
      </trkpt>
      <trkpt lat="34.077220" lon="-118.281420">
        <ele>90.562</ele>
        <time>2018-12-27T14:33:17Z</time>
      </trkpt>
      <trkpt lat="34.077220" lon="-118.281430">
        <ele>90.566</ele>
        <time>2018-12-27T14:33:37Z</time>
      </trkpt>
      <trkpt lat="34.077280" lon="-118.281690">
        <ele>90.729</ele>
        <time>2018-12-27T14:33:57Z</time>
      </trkpt>
      <trkpt lat="34.077280" lon="-118.281720">
        <ele>90.873</ele>
        <time>2018-12-27T14:34:17Z</time>
      </trkpt>
      <trkpt lat="34.077460" lon="-118.282530">
        <ele>92.636</ele>
        <time>2018-12-27T14:34:37Z</time>
      </trkpt>
      <trkpt lat="34.077660" lon="-118.283390">
        <ele>92.545</ele>
        <time>2018-12-27T14:34:57Z</time>
      </trkpt>
      <trkpt lat="34.077790" lon="-118.283960">
        <ele>92.347</ele>
        <time>2018-12-27T14:35:17Z</time>
      </trkpt>
      <trkpt lat="34.077930" lon="-118.284530">
        <ele>87.211</ele>
        <time>2018-12-27T14:35:37Z</time>
      </trkpt>
      <trkpt lat="34.078110" lon="-118.285370">
        <ele>92.508</ele>
        <time>2018-12-27T14:35:57Z</time>
      </trkpt>
      <trkpt lat="34.078180" lon="-118.285750">
        <ele>93.077</ele>
        <time>2018-12-27T14:36:17Z</time>
      </trkpt>
      <trkpt lat="34.078280" lon="-118.286280">
        <ele>93.565</ele>
        <time>2018-12-27T14:36:37Z</time>
      </trkpt>
      <trkpt lat="34.078360" lon="-118.286760">
        <ele>91.370</ele>
        <time>2018-12-27T14:36:57Z</time>
      </trkpt>
      <trkpt lat="34.078450" lon="-118.287190">
        <ele>94.389</ele>
        <time>2018-12-27T14:37:17Z</time>
      </trkpt>
      <trkpt lat="34.078500" lon="-118.287410">
        <ele>95.753</ele>
        <time>2018-12-27T14:37:37Z</time>
      </trkpt>
      <trkpt lat="34.078570" lon="-118.287700">
        <ele>95.916</ele>
        <time>2018-12-27T14:37:57Z</time>
      </trkpt>
      <trkpt lat="34.078710" lon="-118.288230">
        <ele>92.780</ele>
        <time>2018-12-27T14:38:17Z</time>
      </trkpt>
      <trkpt lat="34.078760" lon="-118.288420">
        <ele>92.993</ele>
        <time>2018-12-27T14:38:37Z</time>
      </trkpt>
      <trkpt lat="34.078840" lon="-118.288690">
        <ele>92.042</ele>
        <time>2018-12-27T14:38:57Z</time>
      </trkpt>
      <trkpt lat="34.079020" lon="-118.289220">
        <ele>92.822</ele>
        <time>2018-12-27T14:39:17Z</time>
      </trkpt>
      <trkpt lat="34.079080" lon="-118.289420">
        <ele>91.614</ele>
        <time>2018-12-27T14:39:37Z</time>
      </trkpt>
      <trkpt lat="34.079200" lon="-118.289720">
        <ele>89.008</ele>
        <time>2018-12-27T14:39:57Z</time>
      </trkpt>
      <trkpt lat="34.079380" lon="-118.290110">
        <ele>87.347</ele>
        <time>2018-12-27T14:40:17Z</time>
      </trkpt>
      <trkpt lat="34.079440" lon="-118.290250">
        <ele>87.295</ele>
        <time>2018-12-27T14:40:37Z</time>
      </trkpt>
      <trkpt lat="34.079570" lon="-118.290500">
        <ele>87.080</ele>
        <time>2018-12-27T14:40:57Z</time>
      </trkpt>
      <trkpt lat="34.079790" lon="-118.290910">
        <ele>88.719</ele>
        <time>2018-12-27T14:41:17Z</time>
      </trkpt>
      <trkpt lat="34.079920" lon="-118.291170">
        <ele>89.653</ele>
        <time>2018-12-27T14:41:37Z</time>
      </trkpt>
      <trkpt lat="34.080140" lon="-118.291550">
        <ele>90.996</ele>
        <time>2018-12-27T14:41:57Z</time>
      </trkpt>
      <trkpt lat="34.080210" lon="-118.291690">
        <ele>91.360</ele>
        <time>2018-12-27T14:42:17Z</time>
      </trkpt>
      <trkpt lat="34.080560" lon="-118.292350">
        <ele>91.853</ele>
        <time>2018-12-27T14:42:37Z</time>
      </trkpt>
      <trkpt lat="34.080990" lon="-118.293200">
        <ele>92.421</ele>
        <time>2018-12-27T14:42:57Z</time>
      </trkpt>
      <trkpt lat="34.081300" lon="-118.293870">
        <ele>91.641</ele>
        <time>2018-12-27T14:43:17Z</time>
      </trkpt>
      <trkpt lat="34.081610" lon="-118.294520">
        <ele>89.605</ele>
        <time>2018-12-27T14:43:37Z</time>
      </trkpt>
      <trkpt lat="34.081840" lon="-118.295030">
        <ele>89.008</ele>
        <time>2018-12-27T14:43:57Z</time>
      </trkpt>
      <trkpt lat="34.081930" lon="-118.295220">
        <ele>89.035</ele>
        <time>2018-12-27T14:44:17Z</time>
      </trkpt>
      <trkpt lat="34.082040" lon="-118.295470">
        <ele>90.243</ele>
        <time>2018-12-27T14:44:37Z</time>
      </trkpt>
      <trkpt lat="34.082640" lon="-118.296750">
        <ele>92.298</ele>
        <time>2018-12-27T14:44:57Z</time>
      </trkpt>
      <trkpt lat="34.082740" lon="-118.296960">
        <ele>92.217</ele>
        <time>2018-12-27T14:45:17Z</time>
      </trkpt>
      <trkpt lat="34.082940" lon="-118.297380">
        <ele>92.231</ele>
        <time>2018-12-27T14:45:37Z</time>
      </trkpt>
      <trkpt lat="34.082970" lon="-118.297430">
        <ele>92.224</ele>
        <time>2018-12-27T14:45:57Z</time>
      </trkpt>
      <trkpt lat="34.083070" lon="-118.297610">
        <ele>92.248</ele>
        <time>2018-12-27T14:46:17Z</time>
      </trkpt>
      <trkpt lat="34.083230" lon="-118.297900">
        <ele>92.111</ele>
        <time>2018-12-27T14:46:37Z</time>
      </trkpt>
      <trkpt lat="34.083230" lon="-118.297920">
        <ele>92.289</ele>
        <time>2018-12-27T14:46:57Z</time>
      </trkpt>
      <trkpt lat="34.083400" lon="-118.298190">
        <ele>92.206</ele>
        <time>2018-12-27T14:47:17Z</time>
      </trkpt>
      <trkpt lat="34.083460" lon="-118.298290">
        <ele>92.226</ele>
        <time>2018-12-27T14:47:37Z</time>
      </trkpt>
      <trkpt lat="34.083560" lon="-118.298470">
        <ele>92.208</ele>
        <time>2018-12-27T14:47:57Z</time>
      </trkpt>
      <trkpt lat="34.083680" lon="-118.298660">
        <ele>92.841</ele>
        <time>2018-12-27T14:48:17Z</time>
      </trkpt>
      <trkpt lat="34.083700" lon="-118.298690">
        <ele>93.029</ele>
        <time>2018-12-27T14:48:37Z</time>
      </trkpt>
      <trkpt lat="34.083850" lon="-118.298930">
        <ele>94.024</ele>
        <time>2018-12-27T14:48:57Z</time>
      </trkpt>
      <trkpt lat="34.084030" lon="-118.299220">
        <ele>97.913</ele>
        <time>2018-12-27T14:49:17Z</time>
      </trkpt>
      <trkpt lat="34.084270" lon="-118.299560">
        <ele>98.247</ele>
        <time>2018-12-27T14:49:37Z</time>
      </trkpt>
      <trkpt lat="34.084640" lon="-118.300100">
        <ele>98.310</ele>
        <time>2018-12-27T14:49:57Z</time>
      </trkpt>
      <trkpt lat="34.084800" lon="-118.300330">
        <ele>98.164</ele>
        <time>2018-12-27T14:50:17Z</time>
      </trkpt>
      <trkpt lat="34.084850" lon="-118.300400">
        <ele>98.167</ele>
        <time>2018-12-27T14:50:37Z</time>
      </trkpt>
      <trkpt lat="34.084900" lon="-118.300470">
        <ele>98.211</ele>
        <time>2018-12-27T14:50:57Z</time>
      </trkpt>
      <trkpt lat="34.084910" lon="-118.300490">
        <ele>98.221</ele>
        <time>2018-12-27T14:51:17Z</time>
      </trkpt>
      <trkpt lat="34.084980" lon="-118.300600">
        <ele>98.303</ele>
        <time>2018-12-27T14:51:37Z</time>
      </trkpt>
      <trkpt lat="34.085040" lon="-118.300690">
        <ele>98.408</ele>
        <time>2018-12-27T14:51:57Z</time>
      </trkpt>
      <trkpt lat="34.085110" lon="-118.300780">
        <ele>98.474</ele>
        <time>2018-12-27T14:52:17Z</time>
      </trkpt>
      <trkpt lat="34.085680" lon="-118.301620">
        <ele>98.642</ele>
        <time>2018-12-27T14:52:37Z</time>
      </trkpt>
      <trkpt lat="34.086140" lon="-118.302280">
        <ele>96.777</ele>
        <time>2018-12-27T14:52:57Z</time>
      </trkpt>
      <trkpt lat="34.086410" lon="-118.302650">
        <ele>95.296</ele>
        <time>2018-12-27T14:53:17Z</time>
      </trkpt>
      <trkpt lat="34.086490" lon="-118.302770">
        <ele>95.280</ele>
        <time>2018-12-27T14:53:37Z</time>
      </trkpt>
      <trkpt lat="34.086880" lon="-118.303310">
        <ele>95.273</ele>
        <time>2018-12-27T14:53:57Z</time>
      </trkpt>
      <trkpt lat="34.087020" lon="-118.303490">
        <ele>95.227</ele>
        <time>2018-12-27T14:54:17Z</time>
      </trkpt>
      <trkpt lat="34.087220" lon="-118.303720">
        <ele>95.580</ele>
        <time>2018-12-27T14:54:37Z</time>
      </trkpt>
      <trkpt lat="34.087420" lon="-118.303960">
        <ele>95.882</ele>
        <time>2018-12-27T14:54:57Z</time>
      </trkpt>
      <trkpt lat="34.087630" lon="-118.304160">
        <ele>96.043</ele>
        <time>2018-12-27T14:55:17Z</time>
      </trkpt>
      <trkpt lat="34.087850" lon="-118.304380">
        <ele>96.117</ele>
        <time>2018-12-27T14:55:37Z</time>
      </trkpt>
      <trkpt lat="34.088070" lon="-118.304570">
        <ele>96.008</ele>
        <time>2018-12-27T14:55:57Z</time>
      </trkpt>
      <trkpt lat="34.088260" lon="-118.304730">
        <ele>96.121</ele>
        <time>2018-12-27T14:56:17Z</time>
      </trkpt>
      <trkpt lat="34.088490" lon="-118.304910">
        <ele>96.059</ele>
        <time>2018-12-27T14:56:37Z</time>
      </trkpt>
      <trkpt lat="34.088650" lon="-118.305030">
        <ele>96.464</ele>
        <time>2018-12-27T14:56:57Z</time>
      </trkpt>
      <trkpt lat="34.088810" lon="-118.305150">
        <ele>96.233</ele>
        <time>2018-12-27T14:57:17Z</time>
      </trkpt>
      <trkpt lat="34.088830" lon="-118.305160">
        <ele>96.297</ele>
        <time>2018-12-27T14:57:37Z</time>
      </trkpt>
      <trkpt lat="34.088840" lon="-118.305180">
        <ele>96.310</ele>
        <time>2018-12-27T14:57:57Z</time>
      </trkpt>
      <trkpt lat="34.088940" lon="-118.305270">
        <ele>96.474</ele>
        <time>2018-12-27T14:58:17Z</time>
      </trkpt>
      <trkpt lat="34.089030" lon="-118.305320">
        <ele>96.337</ele>
        <time>2018-12-27T14:58:37Z</time>
      </trkpt>
      <trkpt lat="34.089140" lon="-118.305390">
        <ele>96.274</ele>
        <time>2018-12-27T14:58:57Z</time>
      </trkpt>
      <trkpt lat="34.089600" lon="-118.305670">
        <ele>96.456</ele>
        <time>2018-12-27T14:59:17Z</time>
      </trkpt>
      <trkpt lat="34.090610" lon="-118.306280">
        <ele>96.821</ele>
        <time>2018-12-27T14:59:37Z</time>
      </trkpt>
      <trkpt lat="34.090770" lon="-118.306380">
        <ele>96.908</ele>
        <time>2018-12-27T14:59:57Z</time>
      </trkpt>
      <trkpt lat="34.091220" lon="-118.306650">
        <ele>97.460</ele>
        <time>2018-12-27T15:00:17Z</time>
      </trkpt>
      <trkpt lat="34.091490" lon="-118.306820">
        <ele>97.338</ele>
        <time>2018-12-27T15:00:37Z</time>
      </trkpt>
      <trkpt lat="34.091710" lon="-118.306950">
        <ele>97.433</ele>
        <time>2018-12-27T15:00:57Z</time>
      </trkpt>
      <trkpt lat="34.091820" lon="-118.307030">
        <ele>97.142</ele>
        <time>2018-12-27T15:01:17Z</time>
      </trkpt>
      <trkpt lat="34.091960" lon="-118.307120">
        <ele>97.556</ele>
        <time>2018-12-27T15:01:37Z</time>
      </trkpt>
      <trkpt lat="34.092110" lon="-118.307230">
        <ele>97.689</ele>
        <time>2018-12-27T15:01:57Z</time>
      </trkpt>
      <trkpt lat="34.092350" lon="-118.307420">
        <ele>97.743</ele>
        <time>2018-12-27T15:02:17Z</time>
      </trkpt>
      <trkpt lat="34.092460" lon="-118.307520">
        <ele>97.896</ele>
        <time>2018-12-27T15:02:37Z</time>
      </trkpt>
      <trkpt lat="34.092640" lon="-118.307690">
        <ele>97.622</ele>
        <time>2018-12-27T15:02:57Z</time>
      </trkpt>
      <trkpt lat="34.092840" lon="-118.307900">
        <ele>97.662</ele>
        <time>2018-12-27T15:03:17Z</time>
      </trkpt>
      <trkpt lat="34.092960" lon="-118.308020">
        <ele>97.708</ele>
        <time>2018-12-27T15:03:37Z</time>
      </trkpt>
      <trkpt lat="34.093150" lon="-118.308250">
        <ele>97.508</ele>
        <time>2018-12-27T15:03:57Z</time>
      </trkpt>
      <trkpt lat="34.093240" lon="-118.308360">
        <ele>97.785</ele>
        <time>2018-12-27T15:04:17Z</time>
      </trkpt>
      <trkpt lat="34.093320" lon="-118.308480">
        <ele>97.373</ele>
        <time>2018-12-27T15:04:37Z</time>
      </trkpt>
      <trkpt lat="34.093390" lon="-118.308580">
        <ele>97.488</ele>
        <time>2018-12-27T15:04:57Z</time>
      </trkpt>
      <trkpt lat="34.093550" lon="-118.308810">
        <ele>97.667</ele>
        <time>2018-12-27T15:05:17Z</time>
      </trkpt>
      <trkpt lat="34.093800" lon="-118.309200">
        <ele>97.831</ele>
        <time>2018-12-27T15:05:37Z</time>
      </trkpt>
      <trkpt lat="34.093810" lon="-118.309220">
        <ele>97.874</ele>
        <time>2018-12-27T15:05:57Z</time>
      </trkpt>
      <trkpt lat="34.093950" lon="-118.309450">
        <ele>97.448</ele>
        <time>2018-12-27T15:06:17Z</time>
      </trkpt>
      <trkpt lat="34.094200" lon="-118.309840">
        <ele>97.461</ele>
        <time>2018-12-27T15:06:37Z</time>
      </trkpt>
      <trkpt lat="34.094520" lon="-118.310350">
        <ele>97.485</ele>
        <time>2018-12-27T15:06:57Z</time>
      </trkpt>
      <trkpt lat="34.094680" lon="-118.310610">
        <ele>97.689</ele>
        <time>2018-12-27T15:07:17Z</time>
      </trkpt>
      <trkpt lat="34.094990" lon="-118.311100">
        <ele>97.617</ele>
        <time>2018-12-27T15:07:37Z</time>
      </trkpt>
      <trkpt lat="34.095170" lon="-118.311380">
        <ele>97.808</ele>
        <time>2018-12-27T15:07:57Z</time>
      </trkpt>
      <trkpt lat="34.095490" lon="-118.311850">
        <ele>98.511</ele>
        <time>2018-12-27T15:08:17Z</time>
      </trkpt>
      <trkpt lat="34.095750" lon="-118.312220">
        <ele>98.029</ele>
        <time>2018-12-27T15:08:37Z</time>
      </trkpt>
      <trkpt lat="34.095810" lon="-118.312300">
        <ele>98.034</ele>
        <time>2018-12-27T15:08:57Z</time>
      </trkpt>
      <trkpt lat="34.095880" lon="-118.312390">
        <ele>97.473</ele>
        <time>2018-12-27T15:09:17Z</time>
      </trkpt>
      <trkpt lat="34.096080" lon="-118.312630">
        <ele>97.727</ele>
        <time>2018-12-27T15:09:37Z</time>
      </trkpt>
      <trkpt lat="34.096260" lon="-118.312840">
        <ele>97.910</ele>
        <time>2018-12-27T15:09:57Z</time>
      </trkpt>
      <trkpt lat="34.096350" lon="-118.312930">
        <ele>97.954</ele>
        <time>2018-12-27T15:10:17Z</time>
      </trkpt>
      <trkpt lat="34.096380" lon="-118.312970">
        <ele>97.967</ele>
        <time>2018-12-27T15:10:37Z</time>
      </trkpt>
      <trkpt lat="34.096540" lon="-118.313140">
        <ele>97.973</ele>
        <time>2018-12-27T15:10:57Z</time>
      </trkpt>
      <trkpt lat="34.096700" lon="-118.313300">
        <ele>98.885</ele>
        <time>2018-12-27T15:11:17Z</time>
      </trkpt>
      <trkpt lat="34.096890" lon="-118.313480">
        <ele>98.413</ele>
        <time>2018-12-27T15:11:37Z</time>
      </trkpt>
      <trkpt lat="34.097020" lon="-118.313590">
        <ele>98.808</ele>
        <time>2018-12-27T15:11:57Z</time>
      </trkpt>
      <trkpt lat="34.097270" lon="-118.313810">
        <ele>99.890</ele>
        <time>2018-12-27T15:12:17Z</time>
      </trkpt>
      <trkpt lat="34.097400" lon="-118.313900">
        <ele>100.778</ele>
        <time>2018-12-27T15:12:37Z</time>
      </trkpt>
      <trkpt lat="34.097730" lon="-118.314170">
        <ele>102.923</ele>
        <time>2018-12-27T15:12:57Z</time>
      </trkpt>
      <trkpt lat="34.098080" lon="-118.314390">
        <ele>104.222</ele>
        <time>2018-12-27T15:13:17Z</time>
      </trkpt>
      <trkpt lat="34.098130" lon="-118.314430">
        <ele>104.276</ele>
        <time>2018-12-27T15:13:37Z</time>
      </trkpt>
      <trkpt lat="34.098380" lon="-118.314580">
        <ele>104.319</ele>
        <time>2018-12-27T15:13:57Z</time>
      </trkpt>
      <trkpt lat="34.098920" lon="-118.314890">
        <ele>109.083</ele>
        <time>2018-12-27T15:14:17Z</time>
      </trkpt>
      <trkpt lat="34.100880" lon="-118.316050">
        <ele>113.726</ele>
        <time>2018-12-27T15:14:37Z</time>
      </trkpt>
      <trkpt lat="34.101050" lon="-118.316140">
        <ele>114.833</ele>
        <time>2018-12-27T15:14:57Z</time>
      </trkpt>
      <trkpt lat="34.101240" lon="-118.316240">
        <ele>115.523</ele>
        <time>2018-12-27T15:15:17Z</time>
      </trkpt>
      <trkpt lat="34.101430" lon="-118.316360">
        <ele>116.215</ele>
        <time>2018-12-27T15:15:37Z</time>
      </trkpt>
      <trkpt lat="34.101690" lon="-118.316510">
        <ele>116.308</ele>
        <time>2018-12-27T15:15:57Z</time>
      </trkpt>
      <trkpt lat="34.101950" lon="-118.316690">
        <ele>116.526</ele>
        <time>2018-12-27T15:16:17Z</time>
      </trkpt>
      <trkpt lat="34.102090" lon="-118.316790">
        <ele>116.354</ele>
        <time>2018-12-27T15:16:37Z</time>
      </trkpt>
      <trkpt lat="34.102250" lon="-118.316920">
        <ele>117.319</ele>
        <time>2018-12-27T15:16:57Z</time>
      </trkpt>
      <trkpt lat="34.102390" lon="-118.317040">
        <ele>118.268</ele>
        <time>2018-12-27T15:17:17Z</time>
      </trkpt>
      <trkpt lat="34.102590" lon="-118.317240">
        <ele>120.582</ele>
        <time>2018-12-27T15:17:37Z</time>
      </trkpt>
      <trkpt lat="34.102730" lon="-118.317380">
        <ele>121.235</ele>
        <time>2018-12-27T15:17:57Z</time>
      </trkpt>
      <trkpt lat="34.102910" lon="-118.317590">
        <ele>121.869</ele>
        <time>2018-12-27T15:18:17Z</time>
      </trkpt>
      <trkpt lat="34.103020" lon="-118.317720">
        <ele>122.292</ele>
        <time>2018-12-27T15:18:37Z</time>
      </trkpt>
      <trkpt lat="34.103110" lon="-118.317820">
        <ele>122.378</ele>
        <time>2018-12-27T15:18:57Z</time>
      </trkpt>
      <trkpt lat="34.103220" lon="-118.317970">
        <ele>122.333</ele>
        <time>2018-12-27T15:19:17Z</time>
      </trkpt>
      <trkpt lat="34.103420" lon="-118.318290">
        <ele>122.426</ele>
        <time>2018-12-27T15:19:37Z</time>
      </trkpt>
      <trkpt lat="34.103630" lon="-118.318640">
        <ele>122.808</ele>
        <time>2018-12-27T15:19:57Z</time>
      </trkpt>
      <trkpt lat="34.103780" lon="-118.318950">
        <ele>124.220</ele>
        <time>2018-12-27T15:20:17Z</time>
      </trkpt>
      <trkpt lat="34.103910" lon="-118.319260">
        <ele>126.198</ele>
        <time>2018-12-27T15:20:37Z</time>
      </trkpt>
      <trkpt lat="34.104060" lon="-118.319690">
        <ele>127.523</ele>
        <time>2018-12-27T15:20:57Z</time>
      </trkpt>
      <trkpt lat="34.104160" lon="-118.320030">
        <ele>128.552</ele>
        <time>2018-12-27T15:21:17Z</time>
      </trkpt>
      <trkpt lat="34.104230" lon="-118.320320">
        <ele>129.376</ele>
        <time>2018-12-27T15:21:37Z</time>
      </trkpt>
      <trkpt lat="34.104260" lon="-118.320490">
        <ele>129.719</ele>
        <time>2018-12-27T15:21:57Z</time>
      </trkpt>
      <trkpt lat="34.104290" lon="-118.320640">
        <ele>129.943</ele>
        <time>2018-12-27T15:22:17Z</time>
      </trkpt>
      <trkpt lat="34.104340" lon="-118.320930">
        <ele>130.326</ele>
        <time>2018-12-27T15:22:37Z</time>
      </trkpt>
      <trkpt lat="34.104360" lon="-118.321170">
        <ele>131.613</ele>
        <time>2018-12-27T15:22:57Z</time>
      </trkpt>
      <trkpt lat="34.104390" lon="-118.321490">
        <ele>134.343</ele>
        <time>2018-12-27T15:23:17Z</time>
      </trkpt>
      <trkpt lat="34.104390" lon="-118.321650">
        <ele>134.807</ele>
        <time>2018-12-27T15:23:37Z</time>
      </trkpt>
      <trkpt lat="34.104400" lon="-118.321860">
        <ele>134.808</ele>
        <time>2018-12-27T15:23:57Z</time>
      </trkpt>
      <trkpt lat="34.104410" lon="-118.322300">
        <ele>132.574</ele>
        <time>2018-12-27T15:24:17Z</time>
      </trkpt>
      <trkpt lat="34.104420" lon="-118.322580">
        <ele>134.182</ele>
        <time>2018-12-27T15:24:37Z</time>
      </trkpt>
      <trkpt lat="34.104420" lon="-118.322770">
        <ele>134.877</ele>
        <time>2018-12-27T15:24:57Z</time>
      </trkpt>
      <trkpt lat="34.104430" lon="-118.323080">
        <ele>134.956</ele>
        <time>2018-12-27T15:25:17Z</time>
      </trkpt>
      <trkpt lat="34.104440" lon="-118.323340">
        <ele>134.940</ele>
        <time>2018-12-27T15:25:37Z</time>
      </trkpt>
      <trkpt lat="34.104460" lon="-118.323510">
        <ele>134.933</ele>
        <time>2018-12-27T15:25:57Z</time>
      </trkpt>
      <trkpt lat="34.104470" lon="-118.323690">
        <ele>134.967</ele>
        <time>2018-12-27T15:26:17Z</time>
      </trkpt>
      <trkpt lat="34.104520" lon="-118.324010">
        <ele>134.940</ele>
        <time>2018-12-27T15:26:37Z</time>
      </trkpt>
      <trkpt lat="34.104530" lon="-118.324080">
        <ele>134.925</ele>
        <time>2018-12-27T15:26:57Z</time>
      </trkpt>
      <trkpt lat="34.104550" lon="-118.324170">
        <ele>134.926</ele>
        <time>2018-12-27T15:27:17Z</time>
      </trkpt>
      <trkpt lat="34.104580" lon="-118.324330">
        <ele>134.908</ele>
        <time>2018-12-27T15:27:37Z</time>
      </trkpt>
      <trkpt lat="34.104620" lon="-118.324480">
        <ele>134.908</ele>
        <time>2018-12-27T15:27:57Z</time>
      </trkpt>
      <trkpt lat="34.104640" lon="-118.324590">
        <ele>134.985</ele>
        <time>2018-12-27T15:28:17Z</time>
      </trkpt>
      <trkpt lat="34.104680" lon="-118.324730">
        <ele>134.913</ele>
        <time>2018-12-27T15:28:37Z</time>
      </trkpt>
      <trkpt lat="34.104720" lon="-118.324870">
        <ele>134.928</ele>
        <time>2018-12-27T15:28:57Z</time>
      </trkpt>
      <trkpt lat="34.104780" lon="-118.325030">
        <ele>133.687</ele>
        <time>2018-12-27T15:29:17Z</time>
      </trkpt>
      <trkpt lat="34.104840" lon="-118.325210">
        <ele>132.391</ele>
        <time>2018-12-27T15:29:37Z</time>
      </trkpt>
      <trkpt lat="34.104920" lon="-118.325430">
        <ele>130.734</ele>
        <time>2018-12-27T15:29:57Z</time>
      </trkpt>
      <trkpt lat="34.105140" lon="-118.325890">
        <ele>133.188</ele>
        <time>2018-12-27T15:30:17Z</time>
      </trkpt>
      <trkpt lat="34.105220" lon="-118.326050">
        <ele>134.371</ele>
        <time>2018-12-27T15:30:37Z</time>
      </trkpt>
      <trkpt lat="34.105350" lon="-118.326280">
        <ele>136.999</ele>
        <time>2018-12-27T15:30:57Z</time>
      </trkpt>
      <trkpt lat="34.105470" lon="-118.326490">
        <ele>137.607</ele>
        <time>2018-12-27T15:31:17Z</time>
      </trkpt>
      <trkpt lat="34.105620" lon="-118.326720">
        <ele>137.927</ele>
        <time>2018-12-27T15:31:37Z</time>
      </trkpt>
      <trkpt lat="34.105890" lon="-118.327160">
        <ele>139.508</ele>
        <time>2018-12-27T15:31:57Z</time>
      </trkpt>
      <trkpt lat="34.106160" lon="-118.327600">
        <ele>143.212</ele>
        <time>2018-12-27T15:32:17Z</time>
      </trkpt>
      <trkpt lat="34.106240" lon="-118.327740">
        <ele>143.660</ele>
        <time>2018-12-27T15:32:37Z</time>
      </trkpt>
      <trkpt lat="34.106380" lon="-118.327950">
        <ele>143.245</ele>
        <time>2018-12-27T15:32:57Z</time>
      </trkpt>
      <trkpt lat="34.106530" lon="-118.328200">
        <ele>142.364</ele>
        <time>2018-12-27T15:33:17Z</time>
      </trkpt>
      <trkpt lat="34.106640" lon="-118.328400">
        <ele>142.238</ele>
        <time>2018-12-27T15:33:37Z</time>
      </trkpt>
      <trkpt lat="34.106900" lon="-118.328840">
        <ele>142.251</ele>
        <time>2018-12-27T15:33:57Z</time>
      </trkpt>
      <trkpt lat="34.107790" lon="-118.330360">
        <ele>141.915</ele>
        <time>2018-12-27T15:34:17Z</time>
      </trkpt>
      <trkpt lat="34.108060" lon="-118.330820">
        <ele>142.258</ele>
        <time>2018-12-27T15:34:37Z</time>
      </trkpt>
      <trkpt lat="34.108670" lon="-118.331830">
        <ele>150.488</ele>
        <time>2018-12-27T15:34:57Z</time>
      </trkpt>
      <trkpt lat="34.108760" lon="-118.331960">
        <ele>151.124</ele>
        <time>2018-12-27T15:35:17Z</time>
      </trkpt>
      <trkpt lat="34.109140" lon="-118.332610">
        <ele>152.326</ele>
        <time>2018-12-27T15:35:37Z</time>
      </trkpt>
      <trkpt lat="34.109340" lon="-118.332920">
        <ele>152.908</ele>
        <time>2018-12-27T15:35:57Z</time>
      </trkpt>
      <trkpt lat="34.109450" lon="-118.333110">
        <ele>156.291</ele>
        <time>2018-12-27T15:36:17Z</time>
      </trkpt>
      <trkpt lat="34.109600" lon="-118.333340">
        <ele>156.559</ele>
        <time>2018-12-27T15:36:37Z</time>
      </trkpt>
      <trkpt lat="34.109660" lon="-118.333420">
        <ele>156.944</ele>
        <time>2018-12-27T15:36:57Z</time>
      </trkpt>
      <trkpt lat="34.109810" lon="-118.333640">
        <ele>157.443</ele>
        <time>2018-12-27T15:37:17Z</time>
      </trkpt>
      <trkpt lat="34.109940" lon="-118.333790">
        <ele>156.827</ele>
        <time>2018-12-27T15:37:37Z</time>
      </trkpt>
      <trkpt lat="34.110310" lon="-118.334230">
        <ele>151.790</ele>
        <time>2018-12-27T15:37:57Z</time>
      </trkpt>
      <trkpt lat="34.110370" lon="-118.334300">
        <ele>149.494</ele>
        <time>2018-12-27T15:38:17Z</time>
      </trkpt>
      <trkpt lat="34.110460" lon="-118.334380">
        <ele>148.077</ele>
        <time>2018-12-27T15:38:37Z</time>
      </trkpt>
      <trkpt lat="34.110480" lon="-118.334410">
        <ele>148.241</ele>
        <time>2018-12-27T15:38:57Z</time>
      </trkpt>
      <trkpt lat="34.110630" lon="-118.334540">
        <ele>152.181</ele>
        <time>2018-12-27T15:39:17Z</time>
      </trkpt>
      <trkpt lat="34.110700" lon="-118.334600">
        <ele>154.809</ele>
        <time>2018-12-27T15:39:37Z</time>
      </trkpt>
      <trkpt lat="34.110900" lon="-118.334770">
        <ele>153.408</ele>
        <time>2018-12-27T15:39:57Z</time>
      </trkpt>
      <trkpt lat="34.111040" lon="-118.334870">
        <ele>153.367</ele>
        <time>2018-12-27T15:40:17Z</time>
      </trkpt>
      <trkpt lat="34.111230" lon="-118.335010">
        <ele>153.325</ele>
        <time>2018-12-27T15:40:37Z</time>
      </trkpt>
      <trkpt lat="34.111500" lon="-118.335180">
        <ele>153.360</ele>
        <time>2018-12-27T15:40:57Z</time>
      </trkpt>
      <trkpt lat="34.111750" lon="-118.335310">
        <ele>153.879</ele>
        <time>2018-12-27T15:41:17Z</time>
      </trkpt>
      <trkpt lat="34.111840" lon="-118.335370">
        <ele>154.023</ele>
        <time>2018-12-27T15:41:37Z</time>
      </trkpt>
      <trkpt lat="34.111930" lon="-118.335410">
        <ele>153.786</ele>
        <time>2018-12-27T15:41:57Z</time>
      </trkpt>
      <trkpt lat="34.112020" lon="-118.335450">
        <ele>153.280</ele>
        <time>2018-12-27T15:42:17Z</time>
      </trkpt>
      <trkpt lat="34.112160" lon="-118.335510">
        <ele>153.153</ele>
        <time>2018-12-27T15:42:37Z</time>
      </trkpt>
      <trkpt lat="34.112250" lon="-118.335540">
        <ele>153.273</ele>
        <time>2018-12-27T15:42:57Z</time>
      </trkpt>
      <trkpt lat="34.112350" lon="-118.335580">
        <ele>153.185</ele>
        <time>2018-12-27T15:43:17Z</time>
      </trkpt>
      <trkpt lat="34.112620" lon="-118.335670">
        <ele>152.613</ele>
        <time>2018-12-27T15:43:37Z</time>
      </trkpt>
      <trkpt lat="34.112950" lon="-118.335780">
        <ele>153.008</ele>
        <time>2018-12-27T15:43:57Z</time>
      </trkpt>
      <trkpt lat="34.113110" lon="-118.335840">
        <ele>154.080</ele>
        <time>2018-12-27T15:44:17Z</time>
      </trkpt>
      <trkpt lat="34.113370" lon="-118.335920">
        <ele>156.078</ele>
        <time>2018-12-27T15:44:37Z</time>
      </trkpt>
      <trkpt lat="34.113560" lon="-118.335990">
        <ele>157.543</ele>
        <time>2018-12-27T15:44:57Z</time>
      </trkpt>
      <trkpt lat="34.114410" lon="-118.336270">
        <ele>161.442</ele>
        <time>2018-12-27T15:45:17Z</time>
      </trkpt>
      <trkpt lat="34.114640" lon="-118.336380">
        <ele>163.666</ele>
        <time>2018-12-27T15:45:37Z</time>
      </trkpt>
      <trkpt lat="34.114640" lon="-118.336390">
        <ele>163.559</ele>
        <time>2018-12-27T15:45:57Z</time>
      </trkpt>
      <trkpt lat="34.115520" lon="-118.336650">
        <ele>165.523</ele>
        <time>2018-12-27T15:46:17Z</time>
      </trkpt>
      <trkpt lat="34.116050" lon="-118.336810">
        <ele>168.626</ele>
        <time>2018-12-27T15:46:37Z</time>
      </trkpt>
      <trkpt lat="34.116470" lon="-118.336920">
        <ele>171.258</ele>
        <time>2018-12-27T15:46:57Z</time>
      </trkpt>
      <trkpt lat="34.116750" lon="-118.337000">
        <ele>173.052</ele>
        <time>2018-12-27T15:47:17Z</time>
      </trkpt>
      <trkpt lat="34.116840" lon="-118.337020">
        <ele>173.417</ele>
        <time>2018-12-27T15:47:37Z</time>
      </trkpt>
      <trkpt lat="34.116900" lon="-118.337040">
        <ele>173.508</ele>
        <time>2018-12-27T15:47:57Z</time>
      </trkpt>
      <trkpt lat="34.117270" lon="-118.337120">
        <ele>175.348</ele>
        <time>2018-12-27T15:48:17Z</time>
      </trkpt>
      <trkpt lat="34.117760" lon="-118.337280">
        <ele>178.426</ele>
        <time>2018-12-27T15:48:37Z</time>
      </trkpt>
      <trkpt lat="34.118120" lon="-118.337400">
        <ele>180.521</ele>
        <time>2018-12-27T15:48:57Z</time>
      </trkpt>
      <trkpt lat="34.118750" lon="-118.337700">
        <ele>184.070</ele>
        <time>2018-12-27T15:49:17Z</time>
      </trkpt>
      <trkpt lat="34.119450" lon="-118.338080">
        <ele>189.234</ele>
        <time>2018-12-27T15:49:37Z</time>
      </trkpt>
      <trkpt lat="34.120020" lon="-118.338460">
        <ele>192.187</ele>
        <time>2018-12-27T15:49:57Z</time>
      </trkpt>
      <trkpt lat="34.120590" lon="-118.338850">
        <ele>194.671</ele>
        <time>2018-12-27T15:50:17Z</time>
      </trkpt>
      <trkpt lat="34.121320" lon="-118.339490">
        <ele>198.274</ele>
        <time>2018-12-27T15:50:37Z</time>
      </trkpt>
      <trkpt lat="34.121700" lon="-118.339870">
        <ele>201.087</ele>
        <time>2018-12-27T15:50:57Z</time>
      </trkpt>
      <trkpt lat="34.122220" lon="-118.340420">
        <ele>207.742</ele>
        <time>2018-12-27T15:51:17Z</time>
      </trkpt>
      <trkpt lat="34.122350" lon="-118.340550">
        <ele>209.226</ele>
        <time>2018-12-27T15:51:37Z</time>
      </trkpt>
      <trkpt lat="34.122370" lon="-118.340590">
        <ele>209.608</ele>
        <time>2018-12-27T15:51:57Z</time>
      </trkpt>
      <trkpt lat="34.122400" lon="-118.340620">
        <ele>210.011</ele>
        <time>2018-12-27T15:52:17Z</time>
      </trkpt>
      <trkpt lat="34.122430" lon="-118.340660">
        <ele>210.399</ele>
        <time>2018-12-27T15:52:37Z</time>
      </trkpt>
      <trkpt lat="34.122450" lon="-118.340680">
        <ele>210.444</ele>
        <time>2018-12-27T15:52:57Z</time>
      </trkpt>
      <trkpt lat="34.122450" lon="-118.340690">
        <ele>210.443</ele>
        <time>2018-12-27T15:53:17Z</time>
      </trkpt>
      <trkpt lat="34.122510" lon="-118.340760">
        <ele>211.057</ele>
        <time>2018-12-27T15:53:37Z</time>
      </trkpt>
      <trkpt lat="34.122550" lon="-118.340800">
        <ele>211.350</ele>
        <time>2018-12-27T15:53:57Z</time>
      </trkpt>
      <trkpt lat="34.122610" lon="-118.340860">
        <ele>211.674</ele>
        <time>2018-12-27T15:54:17Z</time>
      </trkpt>
      <trkpt lat="34.122860" lon="-118.341150">
        <ele>213.677</ele>
        <time>2018-12-27T15:54:37Z</time>
      </trkpt>
      <trkpt lat="34.123030" lon="-118.341360">
        <ele>216.098</ele>
        <time>2018-12-27T15:54:57Z</time>
      </trkpt>
      <trkpt lat="34.123240" lon="-118.341600">
        <ele>219.115</ele>
        <time>2018-12-27T15:55:17Z</time>
      </trkpt>
      <trkpt lat="34.123330" lon="-118.341730">
        <ele>220.126</ele>
        <time>2018-12-27T15:55:37Z</time>
      </trkpt>
      <trkpt lat="34.123430" lon="-118.341850">
        <ele>220.608</ele>
        <time>2018-12-27T15:55:57Z</time>
      </trkpt>
      <trkpt lat="34.123530" lon="-118.341970">
        <ele>221.672</ele>
        <time>2018-12-27T15:56:17Z</time>
      </trkpt>
      <trkpt lat="34.123870" lon="-118.342360">
        <ele>224.320</ele>
        <time>2018-12-27T15:56:37Z</time>
      </trkpt>
      <trkpt lat="34.124270" lon="-118.342830">
        <ele>229.115</ele>
        <time>2018-12-27T15:56:57Z</time>
      </trkpt>
      <trkpt lat="34.124380" lon="-118.342960">
        <ele>230.094</ele>
        <time>2018-12-27T15:57:17Z</time>
      </trkpt>
      <trkpt lat="34.124500" lon="-118.343100">
        <ele>229.988</ele>
        <time>2018-12-27T15:57:37Z</time>
      </trkpt>
      <trkpt lat="34.124680" lon="-118.343300">
        <ele>229.251</ele>
        <time>2018-12-27T15:57:57Z</time>
      </trkpt>
      <trkpt lat="34.124880" lon="-118.343500">
        <ele>227.065</ele>
        <time>2018-12-27T15:58:17Z</time>
      </trkpt>
      <trkpt lat="34.124960" lon="-118.343580">
        <ele>227.778</ele>
        <time>2018-12-27T15:58:37Z</time>
      </trkpt>
      <trkpt lat="34.125160" lon="-118.343760">
        <ele>226.452</ele>
        <time>2018-12-27T15:58:57Z</time>
      </trkpt>
      <trkpt lat="34.125290" lon="-118.343870">
        <ele>227.753</ele>
        <time>2018-12-27T15:59:17Z</time>
      </trkpt>
      <trkpt lat="34.125510" lon="-118.344030">
        <ele>229.908</ele>
        <time>2018-12-27T15:59:37Z</time>
      </trkpt>
      <trkpt lat="34.125830" lon="-118.344260">
        <ele>231.708</ele>
        <time>2018-12-27T15:59:57Z</time>
      </trkpt>
      <trkpt lat="34.126340" lon="-118.344590">
        <ele>232.768</ele>
        <time>2018-12-27T16:00:17Z</time>
      </trkpt>
      <trkpt lat="34.126460" lon="-118.344660">
        <ele>232.766</ele>
        <time>2018-12-27T16:00:37Z</time>
      </trkpt>
      <trkpt lat="34.126600" lon="-118.344760">
        <ele>232.321</ele>
        <time>2018-12-27T16:00:57Z</time>
      </trkpt>
      <trkpt lat="34.126730" lon="-118.344860">
        <ele>231.990</ele>
        <time>2018-12-27T16:01:17Z</time>
      </trkpt>
      <trkpt lat="34.126850" lon="-118.344950">
        <ele>231.734</ele>
        <time>2018-12-27T16:01:37Z</time>
      </trkpt>
      <trkpt lat="34.126940" lon="-118.345030">
        <ele>231.367</ele>
        <time>2018-12-27T16:01:57Z</time>
      </trkpt>
      <trkpt lat="34.127030" lon="-118.345100">
        <ele>230.931</ele>
        <time>2018-12-27T16:02:17Z</time>
      </trkpt>
      <trkpt lat="34.127200" lon="-118.345250">
        <ele>229.514</ele>
        <time>2018-12-27T16:02:37Z</time>
      </trkpt>
      <trkpt lat="34.127280" lon="-118.345330">
        <ele>228.561</ele>
        <time>2018-12-27T16:02:57Z</time>
      </trkpt>
      <trkpt lat="34.127370" lon="-118.345420">
        <ele>227.421</ele>
        <time>2018-12-27T16:03:17Z</time>
      </trkpt>
      <trkpt lat="34.127580" lon="-118.345630">
        <ele>225.113</ele>
        <time>2018-12-27T16:03:37Z</time>
      </trkpt>
      <trkpt lat="34.128110" lon="-118.346170">
        <ele>221.008</ele>
        <time>2018-12-27T16:03:57Z</time>
      </trkpt>
      <trkpt lat="34.128140" lon="-118.346210">
        <ele>220.689</ele>
        <time>2018-12-27T16:04:17Z</time>
      </trkpt>
      <trkpt lat="34.128210" lon="-118.346270">
        <ele>220.367</ele>
        <time>2018-12-27T16:04:37Z</time>
      </trkpt>
      <trkpt lat="34.128330" lon="-118.346390">
        <ele>220.842</ele>
        <time>2018-12-27T16:04:57Z</time>
      </trkpt>
      <trkpt lat="34.128400" lon="-118.346470">
        <ele>220.351</ele>
        <time>2018-12-27T16:05:17Z</time>
      </trkpt>
      <trkpt lat="34.128640" lon="-118.346710">
        <ele>219.715</ele>
        <time>2018-12-27T16:05:37Z</time>
      </trkpt>
      <trkpt lat="34.129230" lon="-118.347310">
        <ele>215.778</ele>
        <time>2018-12-27T16:05:57Z</time>
      </trkpt>
      <trkpt lat="34.129470" lon="-118.347560">
        <ele>214.812</ele>
        <time>2018-12-27T16:06:17Z</time>
      </trkpt>
      <trkpt lat="34.130650" lon="-118.348780">
        <ele>213.915</ele>
        <time>2018-12-27T16:06:37Z</time>
      </trkpt>
      <trkpt lat="34.131170" lon="-118.349320">
        <ele>214.857</ele>
        <time>2018-12-27T16:06:57Z</time>
      </trkpt>
      <trkpt lat="34.131350" lon="-118.349490">
        <ele>215.400</ele>
        <time>2018-12-27T16:07:17Z</time>
      </trkpt>
      <trkpt lat="34.131790" lon="-118.349950">
        <ele>215.720</ele>
        <time>2018-12-27T16:07:37Z</time>
      </trkpt>
      <trkpt lat="34.132020" lon="-118.350190">
        <ele>215.008</ele>
        <time>2018-12-27T16:07:57Z</time>
      </trkpt>
      <trkpt lat="34.132190" lon="-118.350400">
        <ele>212.458</ele>
        <time>2018-12-27T16:08:17Z</time>
      </trkpt>
      <trkpt lat="34.132340" lon="-118.350590">
        <ele>209.956</ele>
        <time>2018-12-27T16:08:37Z</time>
      </trkpt>
      <trkpt lat="34.132490" lon="-118.350800">
        <ele>207.681</ele>
        <time>2018-12-27T16:08:57Z</time>
      </trkpt>
      <trkpt lat="34.132610" lon="-118.350970">
        <ele>206.750</ele>
        <time>2018-12-27T16:09:17Z</time>
      </trkpt>
      <trkpt lat="34.132740" lon="-118.351180">
        <ele>207.274</ele>
        <time>2018-12-27T16:09:37Z</time>
      </trkpt>
      <trkpt lat="34.132820" lon="-118.351320">
        <ele>207.027</ele>
        <time>2018-12-27T16:09:57Z</time>
      </trkpt>
      <trkpt lat="34.132910" lon="-118.351470">
        <ele>206.651</ele>
        <time>2018-12-27T16:10:17Z</time>
      </trkpt>
      <trkpt lat="34.133000" lon="-118.351630">
        <ele>206.744</ele>
        <time>2018-12-27T16:10:37Z</time>
      </trkpt>
      <trkpt lat="34.133100" lon="-118.351850">
        <ele>206.417</ele>
        <time>2018-12-27T16:10:57Z</time>
      </trkpt>
      <trkpt lat="34.133230" lon="-118.352150">
        <ele>205.887</ele>
        <time>2018-12-27T16:11:17Z</time>
      </trkpt>
      <trkpt lat="34.133290" lon="-118.352300">
        <ele>205.215</ele>
        <time>2018-12-27T16:11:37Z</time>
      </trkpt>
      <trkpt lat="34.133400" lon="-118.352620">
        <ele>204.108</ele>
        <time>2018-12-27T16:11:57Z</time>
      </trkpt>
      <trkpt lat="34.133450" lon="-118.352770">
        <ele>204.134</ele>
        <time>2018-12-27T16:12:17Z</time>
      </trkpt>
      <trkpt lat="34.133520" lon="-118.353020">
        <ele>204.612</ele>
        <time>2018-12-27T16:12:37Z</time>
      </trkpt>
      <trkpt lat="34.133590" lon="-118.353270">
        <ele>205.267</ele>
        <time>2018-12-27T16:12:57Z</time>
      </trkpt>
      <trkpt lat="34.133620" lon="-118.353400">
        <ele>205.446</ele>
        <time>2018-12-27T16:13:17Z</time>
      </trkpt>
      <trkpt lat="34.133680" lon="-118.353640">
        <ele>205.540</ele>
        <time>2018-12-27T16:13:37Z</time>
      </trkpt>
      <trkpt lat="34.133740" lon="-118.353930">
        <ele>205.383</ele>
        <time>2018-12-27T16:13:57Z</time>
      </trkpt>
      <trkpt lat="34.133790" lon="-118.354100">
        <ele>205.597</ele>
        <time>2018-12-27T16:14:17Z</time>
      </trkpt>
      <trkpt lat="34.133830" lon="-118.354260">
        <ele>205.630</ele>
        <time>2018-12-27T16:14:37Z</time>
      </trkpt>
      <trkpt lat="34.133850" lon="-118.354380">
        <ele>205.559</ele>
        <time>2018-12-27T16:14:57Z</time>
      </trkpt>
      <trkpt lat="34.133920" lon="-118.354680">
        <ele>205.503</ele>
        <time>2018-12-27T16:15:17Z</time>
      </trkpt>
      <trkpt lat="34.134110" lon="-118.355470">
        <ele>202.323</ele>
        <time>2018-12-27T16:15:37Z</time>
      </trkpt>
      <trkpt lat="34.134190" lon="-118.355780">
        <ele>201.108</ele>
        <time>2018-12-27T16:15:57Z</time>
      </trkpt>
      <trkpt lat="34.134250" lon="-118.355960">
        <ele>200.238</ele>
        <time>2018-12-27T16:16:17Z</time>
      </trkpt>
      <trkpt lat="34.134270" lon="-118.356030">
        <ele>199.956</ele>
        <time>2018-12-27T16:16:37Z</time>
      </trkpt>
      <trkpt lat="34.134300" lon="-118.356120">
        <ele>199.641</ele>
        <time>2018-12-27T16:16:57Z</time>
      </trkpt>
      <trkpt lat="34.134360" lon="-118.356310">
        <ele>198.790</ele>
        <time>2018-12-27T16:17:17Z</time>
      </trkpt>
      <trkpt lat="34.134540" lon="-118.356830">
        <ele>195.314</ele>
        <time>2018-12-27T16:17:37Z</time>
      </trkpt>
      <trkpt lat="34.134550" lon="-118.356860">
        <ele>195.187</ele>
        <time>2018-12-27T16:17:57Z</time>
      </trkpt>
      <trkpt lat="34.134590" lon="-118.356980">
        <ele>194.421</ele>
        <time>2018-12-27T16:18:17Z</time>
      </trkpt>
      <trkpt lat="34.134600" lon="-118.357010">
        <ele>194.334</ele>
        <time>2018-12-27T16:18:37Z</time>
      </trkpt>
      <trkpt lat="34.134630" lon="-118.357120">
        <ele>193.767</ele>
        <time>2018-12-27T16:18:57Z</time>
      </trkpt>
      <trkpt lat="34.134650" lon="-118.357160">
        <ele>193.581</ele>
        <time>2018-12-27T16:19:17Z</time>
      </trkpt>
      <trkpt lat="34.134680" lon="-118.357270">
        <ele>193.019</ele>
        <time>2018-12-27T16:19:37Z</time>
      </trkpt>
      <trkpt lat="34.134700" lon="-118.357310">
        <ele>192.808</ele>
        <time>2018-12-27T16:19:57Z</time>
      </trkpt>
      <trkpt lat="34.134730" lon="-118.357420">
        <ele>192.549</ele>
        <time>2018-12-27T16:20:17Z</time>
      </trkpt>
      <trkpt lat="34.134740" lon="-118.357450">
        <ele>192.427</ele>
        <time>2018-12-27T16:20:37Z</time>
      </trkpt>
      <trkpt lat="34.134780" lon="-118.357570">
        <ele>192.382</ele>
        <time>2018-12-27T16:20:57Z</time>
      </trkpt>
      <trkpt lat="34.134790" lon="-118.357600">
        <ele>192.211</ele>
        <time>2018-12-27T16:21:17Z</time>
      </trkpt>
      <trkpt lat="34.134880" lon="-118.357870">
        <ele>192.895</ele>
        <time>2018-12-27T16:21:37Z</time>
      </trkpt>
      <trkpt lat="34.134890" lon="-118.357900">
        <ele>192.948</ele>
        <time>2018-12-27T16:21:57Z</time>
      </trkpt>
      <trkpt lat="34.134920" lon="-118.358020">
        <ele>193.152</ele>
        <time>2018-12-27T16:22:17Z</time>
      </trkpt>
      <trkpt lat="34.134940" lon="-118.358050">
        <ele>193.315</ele>
        <time>2018-12-27T16:22:37Z</time>
      </trkpt>
      <trkpt lat="34.134980" lon="-118.358200">
        <ele>193.594</ele>
        <time>2018-12-27T16:22:57Z</time>
      </trkpt>
      <trkpt lat="34.135020" lon="-118.358310">
        <ele>193.457</ele>
        <time>2018-12-27T16:23:17Z</time>
      </trkpt>
      <trkpt lat="34.135030" lon="-118.358350">
        <ele>193.322</ele>
        <time>2018-12-27T16:23:37Z</time>
      </trkpt>
      <trkpt lat="34.135070" lon="-118.358460">
        <ele>193.108</ele>
        <time>2018-12-27T16:23:57Z</time>
      </trkpt>
      <trkpt lat="34.135090" lon="-118.358490">
        <ele>193.142</ele>
        <time>2018-12-27T16:24:17Z</time>
      </trkpt>
      <trkpt lat="34.135130" lon="-118.358610">
        <ele>192.740</ele>
        <time>2018-12-27T16:24:37Z</time>
      </trkpt>
      <trkpt lat="34.135140" lon="-118.358640">
        <ele>192.685</ele>
        <time>2018-12-27T16:24:57Z</time>
      </trkpt>
      <trkpt lat="34.135190" lon="-118.358750">
        <ele>192.384</ele>
        <time>2018-12-27T16:25:17Z</time>
      </trkpt>
      <trkpt lat="34.135200" lon="-118.358790">
        <ele>192.388</ele>
        <time>2018-12-27T16:25:37Z</time>
      </trkpt>
      <trkpt lat="34.135250" lon="-118.358890">
        <ele>192.411</ele>
        <time>2018-12-27T16:25:57Z</time>
      </trkpt>
      <trkpt lat="34.135260" lon="-118.358930">
        <ele>192.325</ele>
        <time>2018-12-27T16:26:17Z</time>
      </trkpt>
      <trkpt lat="34.135310" lon="-118.359030">
        <ele>192.418</ele>
        <time>2018-12-27T16:26:37Z</time>
      </trkpt>
      <trkpt lat="34.135330" lon="-118.359070">
        <ele>192.318</ele>
        <time>2018-12-27T16:26:57Z</time>
      </trkpt>
      <trkpt lat="34.135370" lon="-118.359170">
        <ele>192.298</ele>
        <time>2018-12-27T16:27:17Z</time>
      </trkpt>
      <trkpt lat="34.135390" lon="-118.359210">
        <ele>192.117</ele>
        <time>2018-12-27T16:27:37Z</time>
      </trkpt>
      <trkpt lat="34.135440" lon="-118.359300">
        <ele>191.908</ele>
        <time>2018-12-27T16:27:57Z</time>
      </trkpt>
      <trkpt lat="34.135460" lon="-118.359340">
        <ele>191.944</ele>
        <time>2018-12-27T16:28:17Z</time>
      </trkpt>
      <trkpt lat="34.135510" lon="-118.359440">
        <ele>191.842</ele>
        <time>2018-12-27T16:28:37Z</time>
      </trkpt>
      <trkpt lat="34.135530" lon="-118.359480">
        <ele>191.757</ele>
        <time>2018-12-27T16:28:57Z</time>
      </trkpt>
      <trkpt lat="34.135600" lon="-118.359600">
        <ele>191.456</ele>
        <time>2018-12-27T16:29:17Z</time>
      </trkpt>
      <trkpt lat="34.135680" lon="-118.359720">
        <ele>191.210</ele>
        <time>2018-12-27T16:29:37Z</time>
      </trkpt>
      <trkpt lat="34.135760" lon="-118.359850">
        <ele>191.163</ele>
        <time>2018-12-27T16:29:57Z</time>
      </trkpt>
      <trkpt lat="34.135840" lon="-118.359980">
        <ele>191.237</ele>
        <time>2018-12-27T16:30:17Z</time>
      </trkpt>
      <trkpt lat="34.135930" lon="-118.360110">
        <ele>191.430</ele>
        <time>2018-12-27T16:30:37Z</time>
      </trkpt>
      <trkpt lat="34.136030" lon="-118.360250">
        <ele>191.792</ele>
        <time>2018-12-27T16:30:57Z</time>
      </trkpt>
      <trkpt lat="34.136310" lon="-118.360630">
        <ele>190.673</ele>
        <time>2018-12-27T16:31:17Z</time>
      </trkpt>
      <trkpt lat="34.136450" lon="-118.360830">
        <ele>189.420</ele>
        <time>2018-12-27T16:31:37Z</time>
      </trkpt>
      <trkpt lat="34.137480" lon="-118.362270">
        <ele>183.908</ele>
        <time>2018-12-27T16:31:57Z</time>
      </trkpt>
      <trkpt lat="34.137700" lon="-118.362570">
        <ele>182.922</ele>
        <time>2018-12-27T16:32:17Z</time>
      </trkpt>
      <trkpt lat="34.137850" lon="-118.362790">
        <ele>181.980</ele>
        <time>2018-12-27T16:32:37Z</time>
      </trkpt>
      <trkpt lat="34.138010" lon="-118.363010">
        <ele>181.425</ele>
        <time>2018-12-27T16:32:57Z</time>
      </trkpt>
      <trkpt lat="34.138080" lon="-118.363120">
        <ele>181.134</ele>
        <time>2018-12-27T16:33:17Z</time>
      </trkpt>
      <trkpt lat="34.138170" lon="-118.363240">
        <ele>180.788</ele>
        <time>2018-12-27T16:33:37Z</time>
      </trkpt>
      <trkpt lat="34.138240" lon="-118.363370">
        <ele>180.561</ele>
        <time>2018-12-27T16:33:57Z</time>
      </trkpt>
      <trkpt lat="34.138270" lon="-118.363420">
        <ele>180.425</ele>
        <time>2018-12-27T16:34:17Z</time>
      </trkpt>
      <trkpt lat="34.138460" lon="-118.363680">
        <ele>179.668</ele>
        <time>2018-12-27T16:34:37Z</time>
      </trkpt>
      <trkpt lat="34.138540" lon="-118.363800">
        <ele>179.281</ele>
        <time>2018-12-27T16:34:57Z</time>
      </trkpt>
      <trkpt lat="34.138630" lon="-118.363920">
        <ele>178.761</ele>
        <time>2018-12-27T16:35:17Z</time>
      </trkpt>
      <trkpt lat="34.138720" lon="-118.364040">
        <ele>178.417</ele>
        <time>2018-12-27T16:35:37Z</time>
      </trkpt>
      <trkpt lat="34.138880" lon="-118.364260">
        <ele>177.908</ele>
        <time>2018-12-27T16:35:57Z</time>
      </trkpt>
      <trkpt lat="34.138970" lon="-118.364380">
        <ele>177.481</ele>
        <time>2018-12-27T16:36:17Z</time>
      </trkpt>
      <trkpt lat="34.139050" lon="-118.364490">
        <ele>177.029</ele>
        <time>2018-12-27T16:36:37Z</time>
      </trkpt>
      <trkpt lat="34.139140" lon="-118.364620">
        <ele>176.644</ele>
        <time>2018-12-27T16:36:57Z</time>
      </trkpt>
      <trkpt lat="34.139250" lon="-118.364760">
        <ele>176.233</ele>
        <time>2018-12-27T16:37:17Z</time>
      </trkpt>
      <trkpt lat="34.139340" lon="-118.364870">
        <ele>175.977</ele>
        <time>2018-12-27T16:37:37Z</time>
      </trkpt>
      <trkpt lat="34.139420" lon="-118.364980">
        <ele>175.880</ele>
        <time>2018-12-27T16:37:57Z</time>
      </trkpt>
      <trkpt lat="34.139520" lon="-118.365090">
        <ele>175.724</ele>
        <time>2018-12-27T16:38:17Z</time>
      </trkpt>
      <trkpt lat="34.139600" lon="-118.365170">
        <ele>175.717</ele>
        <time>2018-12-27T16:38:37Z</time>
      </trkpt>
      <trkpt lat="34.139650" lon="-118.365220">
        <ele>175.855</ele>
        <time>2018-12-27T16:38:57Z</time>
      </trkpt>
      <trkpt lat="34.139730" lon="-118.365310">
        <ele>175.807</ele>
        <time>2018-12-27T16:39:17Z</time>
      </trkpt>
      <trkpt lat="34.139830" lon="-118.365400">
        <ele>175.917</ele>
        <time>2018-12-27T16:39:37Z</time>
      </trkpt>
      <trkpt lat="34.139920" lon="-118.365480">
        <ele>175.708</ele>
        <time>2018-12-27T16:39:57Z</time>
      </trkpt>
      <trkpt lat="34.140000" lon="-118.365560">
        <ele>175.798</ele>
        <time>2018-12-27T16:40:17Z</time>
      </trkpt>
      <trkpt lat="34.140130" lon="-118.365660">
        <ele>175.526</ele>
        <time>2018-12-27T16:40:37Z</time>
      </trkpt>
      <trkpt lat="34.140260" lon="-118.365770">
        <ele>175.381</ele>
        <time>2018-12-27T16:40:57Z</time>
      </trkpt>
      <trkpt lat="34.140370" lon="-118.365850">
        <ele>175.080</ele>
        <time>2018-12-27T16:41:17Z</time>
      </trkpt>
      <trkpt lat="34.140470" lon="-118.365920">
        <ele>174.854</ele>
        <time>2018-12-27T16:41:37Z</time>
      </trkpt>
      <trkpt lat="34.140610" lon="-118.366020">
        <ele>174.537</ele>
        <time>2018-12-27T16:41:57Z</time>
      </trkpt>
      <trkpt lat="34.140740" lon="-118.366100">
        <ele>174.191</ele>
        <time>2018-12-27T16:42:17Z</time>
      </trkpt>
      <trkpt lat="34.140880" lon="-118.366180">
        <ele>173.724</ele>
        <time>2018-12-27T16:42:37Z</time>
      </trkpt>
      <trkpt lat="34.140960" lon="-118.366240">
        <ele>173.516</ele>
        <time>2018-12-27T16:42:57Z</time>
      </trkpt>
      <trkpt lat="34.141070" lon="-118.366300">
        <ele>173.476</ele>
        <time>2018-12-27T16:43:17Z</time>
      </trkpt>
      <trkpt lat="34.141190" lon="-118.366370">
        <ele>173.413</ele>
        <time>2018-12-27T16:43:37Z</time>
      </trkpt>
      <trkpt lat="34.141330" lon="-118.366430">
        <ele>173.408</ele>
        <time>2018-12-27T16:43:57Z</time>
      </trkpt>
      <trkpt lat="34.141700" lon="-118.366600">
        <ele>173.424</ele>
        <time>2018-12-27T16:44:17Z</time>
      </trkpt>
      <trkpt lat="34.141950" lon="-118.366720">
        <ele>173.552</ele>
        <time>2018-12-27T16:44:37Z</time>
      </trkpt>
      <trkpt lat="34.142160" lon="-118.366810">
        <ele>173.567</ele>
        <time>2018-12-27T16:44:57Z</time>
      </trkpt>
      <trkpt lat="34.142350" lon="-118.366900">
        <ele>173.326</ele>
        <time>2018-12-27T16:45:17Z</time>
      </trkpt>
      <trkpt lat="34.142480" lon="-118.366950">
        <ele>173.130</ele>
        <time>2018-12-27T16:45:37Z</time>
      </trkpt>
      <trkpt lat="34.142600" lon="-118.366990">
        <ele>172.933</ele>
        <time>2018-12-27T16:45:57Z</time>
      </trkpt>
      <trkpt lat="34.142970" lon="-118.367160">
        <ele>172.297</ele>
        <time>2018-12-27T16:46:17Z</time>
      </trkpt>
      <trkpt lat="34.143550" lon="-118.367420">
        <ele>167.770</ele>
        <time>2018-12-27T16:46:37Z</time>
      </trkpt>
      <trkpt lat="34.143780" lon="-118.367530">
        <ele>169.658</ele>
        <time>2018-12-27T16:46:57Z</time>
      </trkpt>
      <trkpt lat="34.144000" lon="-118.367630">
        <ele>174.052</ele>
        <time>2018-12-27T16:47:17Z</time>
      </trkpt>
      <trkpt lat="34.144400" lon="-118.367810">
        <ele>174.217</ele>
        <time>2018-12-27T16:47:37Z</time>
      </trkpt>
      <trkpt lat="34.144540" lon="-118.367880">
        <ele>173.908</ele>
        <time>2018-12-27T16:47:57Z</time>
      </trkpt>
      <trkpt lat="34.144570" lon="-118.367890">
        <ele>173.828</ele>
        <time>2018-12-27T16:48:17Z</time>
      </trkpt>
      <trkpt lat="34.144760" lon="-118.368000">
        <ele>173.676</ele>
        <time>2018-12-27T16:48:37Z</time>
      </trkpt>
      <trkpt lat="34.144900" lon="-118.368080">
        <ele>173.571</ele>
        <time>2018-12-27T16:48:57Z</time>
      </trkpt>
      <trkpt lat="34.145080" lon="-118.368200">
        <ele>173.780</ele>
        <time>2018-12-27T16:49:17Z</time>
      </trkpt>
      <trkpt lat="34.145190" lon="-118.368270">
        <ele>174.664</ele>
        <time>2018-12-27T16:49:37Z</time>
      </trkpt>
      <trkpt lat="34.145240" lon="-118.368310">
        <ele>175.477</ele>
        <time>2018-12-27T16:49:57Z</time>
      </trkpt>
      <trkpt lat="34.145360" lon="-118.368400">
        <ele>177.761</ele>
        <time>2018-12-27T16:50:17Z</time>
      </trkpt>
      <trkpt lat="34.145530" lon="-118.368530">
        <ele>181.954</ele>
        <time>2018-12-27T16:50:37Z</time>
      </trkpt>
      <trkpt lat="34.145590" lon="-118.368590">
        <ele>182.957</ele>
        <time>2018-12-27T16:50:57Z</time>
      </trkpt>
      <trkpt lat="34.145630" lon="-118.368620">
        <ele>183.500</ele>
        <time>2018-12-27T16:51:17Z</time>
      </trkpt>
      <trkpt lat="34.145880" lon="-118.368850">
        <ele>184.520</ele>
        <time>2018-12-27T16:51:37Z</time>
      </trkpt>
      <trkpt lat="34.146080" lon="-118.369070">
        <ele>184.608</ele>
        <time>2018-12-27T16:51:57Z</time>
      </trkpt>
      <trkpt lat="34.146260" lon="-118.369270">
        <ele>184.558</ele>
        <time>2018-12-27T16:52:17Z</time>
      </trkpt>
      <trkpt lat="34.146430" lon="-118.369480">
        <ele>183.466</ele>
        <time>2018-12-27T16:52:37Z</time>
      </trkpt>
      <trkpt lat="34.146490" lon="-118.369560">
        <ele>183.911</ele>
        <time>2018-12-27T16:52:57Z</time>
      </trkpt>
      <trkpt lat="34.146660" lon="-118.369770">
        <ele>183.250</ele>
        <time>2018-12-27T16:53:17Z</time>
      </trkpt>
      <trkpt lat="34.146800" lon="-118.369960">
        <ele>183.314</ele>
        <time>2018-12-27T16:53:37Z</time>
      </trkpt>
      <trkpt lat="34.146960" lon="-118.370190">
        <ele>181.747</ele>
        <time>2018-12-27T16:53:57Z</time>
      </trkpt>
      <trkpt lat="34.147000" lon="-118.370240">
        <ele>181.741</ele>
        <time>2018-12-27T16:54:17Z</time>
      </trkpt>
      <trkpt lat="34.147100" lon="-118.370400">
        <ele>182.574</ele>
        <time>2018-12-27T16:54:37Z</time>
      </trkpt>
      <trkpt lat="34.147190" lon="-118.370530">
        <ele>183.636</ele>
        <time>2018-12-27T16:54:57Z</time>
      </trkpt>
      <trkpt lat="34.147360" lon="-118.370770">
        <ele>186.917</ele>
        <time>2018-12-27T16:55:17Z</time>
      </trkpt>
      <trkpt lat="34.147960" lon="-118.371630">
        <ele>187.018</ele>
        <time>2018-12-27T16:55:37Z</time>
      </trkpt>
      <trkpt lat="34.148100" lon="-118.371820">
        <ele>186.308</ele>
        <time>2018-12-27T16:55:57Z</time>
      </trkpt>
      <trkpt lat="34.148400" lon="-118.372240">
        <ele>185.926</ele>
        <time>2018-12-27T16:56:17Z</time>
      </trkpt>
      <trkpt lat="34.148540" lon="-118.372440">
        <ele>186.864</ele>
        <time>2018-12-27T16:56:37Z</time>
      </trkpt>
      <trkpt lat="34.148680" lon="-118.372620">
        <ele>187.419</ele>
        <time>2018-12-27T16:56:57Z</time>
      </trkpt>
      <trkpt lat="34.148800" lon="-118.372750">
        <ele>186.878</ele>
        <time>2018-12-27T16:57:17Z</time>
      </trkpt>
      <trkpt lat="34.148900" lon="-118.372860">
        <ele>186.422</ele>
        <time>2018-12-27T16:57:37Z</time>
      </trkpt>
      <trkpt lat="34.149050" lon="-118.373020">
        <ele>186.845</ele>
        <time>2018-12-27T16:57:57Z</time>
      </trkpt>
      <trkpt lat="34.149170" lon="-118.373150">
        <ele>186.999</ele>
        <time>2018-12-27T16:58:17Z</time>
      </trkpt>
      <trkpt lat="34.149174" lon="-118.373153">
        <ele>186.932</ele>
        <time>2018-12-27T16:58:37Z</time>
      </trkpt>
      <trkpt lat="34.149210" lon="-118.373250">
        <ele>187.297</ele>
        <time>2018-12-27T16:58:57Z</time>
      </trkpt>
      <trkpt lat="34.149210" lon="-118.373260">
        <ele>187.223</ele>
        <time>2018-12-27T16:59:17Z</time>
      </trkpt>
      <trkpt lat="34.149280" lon="-118.373320">
        <ele>187.325</ele>
        <time>2018-12-27T16:59:37Z</time>
      </trkpt>
      <trkpt lat="34.149510" lon="-118.373510">
        <ele>187.308</ele>
        <time>2018-12-27T16:59:57Z</time>
      </trkpt>
      <trkpt lat="34.149780" lon="-118.373720">
        <ele>186.842</ele>
        <time>2018-12-27T17:00:17Z</time>
      </trkpt>
      <trkpt lat="34.149980" lon="-118.373880">
        <ele>185.290</ele>
        <time>2018-12-27T17:00:37Z</time>
      </trkpt>
      <trkpt lat="34.150150" lon="-118.374020">
        <ele>184.075</ele>
        <time>2018-12-27T17:00:57Z</time>
      </trkpt>
      <trkpt lat="34.150370" lon="-118.374190">
        <ele>183.544</ele>
        <time>2018-12-27T17:01:17Z</time>
      </trkpt>
      <trkpt lat="34.150580" lon="-118.374350">
        <ele>183.638</ele>
        <time>2018-12-27T17:01:37Z</time>
      </trkpt>
      <trkpt lat="34.151050" lon="-118.374710">
        <ele>183.761</ele>
        <time>2018-12-27T17:01:57Z</time>
      </trkpt>
      <trkpt lat="34.151140" lon="-118.374780">
        <ele>183.755</ele>
        <time>2018-12-27T17:02:17Z</time>
      </trkpt>
      <trkpt lat="34.151640" lon="-118.375180">
        <ele>183.638</ele>
        <time>2018-12-27T17:02:37Z</time>
      </trkpt>
      <trkpt lat="34.152570" lon="-118.375930">
        <ele>183.636</ele>
        <time>2018-12-27T17:02:57Z</time>
      </trkpt>
      <trkpt lat="34.152800" lon="-118.376110">
        <ele>184.117</ele>
        <time>2018-12-27T17:03:17Z</time>
      </trkpt>
      <trkpt lat="34.152820" lon="-118.376130">
        <ele>184.118</ele>
        <time>2018-12-27T17:03:37Z</time>
      </trkpt>
      <trkpt lat="34.152990" lon="-118.376280">
        <ele>184.208</ele>
        <time>2018-12-27T17:03:57Z</time>
      </trkpt>
      <trkpt lat="34.153150" lon="-118.376410">
        <ele>184.126</ele>
        <time>2018-12-27T17:04:17Z</time>
      </trkpt>
      <trkpt lat="34.153160" lon="-118.376410">
        <ele>184.164</ele>
        <time>2018-12-27T17:04:37Z</time>
      </trkpt>
      <trkpt lat="34.153880" lon="-118.376990">
        <ele>183.899</ele>
        <time>2018-12-27T17:04:57Z</time>
      </trkpt>
      <trkpt lat="34.153940" lon="-118.377040">
        <ele>183.778</ele>
        <time>2018-12-27T17:05:17Z</time>
      </trkpt>
      <trkpt lat="34.153970" lon="-118.377060">
        <ele>183.722</ele>
        <time>2018-12-27T17:05:37Z</time>
      </trkpt>
      <trkpt lat="34.154250" lon="-118.377290">
        <ele>183.935</ele>
        <time>2018-12-27T17:05:57Z</time>
      </trkpt>
      <trkpt lat="34.154350" lon="-118.377360">
        <ele>184.299</ele>
        <time>2018-12-27T17:06:17Z</time>
      </trkpt>
      <trkpt lat="34.154700" lon="-118.377640">
        <ele>186.412</ele>
        <time>2018-12-27T17:06:37Z</time>
      </trkpt>
      <trkpt lat="34.155120" lon="-118.377970">
        <ele>186.933</ele>
        <time>2018-12-27T17:06:57Z</time>
      </trkpt>
      <trkpt lat="34.155470" lon="-118.378210">
        <ele>187.623</ele>
        <time>2018-12-27T17:07:17Z</time>
      </trkpt>
      <trkpt lat="34.155880" lon="-118.378490">
        <ele>190.015</ele>
        <time>2018-12-27T17:07:37Z</time>
      </trkpt>
      <trkpt lat="34.156000" lon="-118.378550">
        <ele>190.308</ele>
        <time>2018-12-27T17:07:57Z</time>
      </trkpt>
      <trkpt lat="34.156040" lon="-118.378570">
        <ele>190.316</ele>
        <time>2018-12-27T17:08:17Z</time>
      </trkpt>
      <trkpt lat="34.156110" lon="-118.378570">
        <ele>190.294</ele>
        <time>2018-12-27T17:08:37Z</time>
      </trkpt>
      <trkpt lat="34.156440" lon="-118.378780">
        <ele>190.549</ele>
        <time>2018-12-27T17:08:57Z</time>
      </trkpt>
      <trkpt lat="34.156910" lon="-118.379050">
        <ele>189.048</ele>
        <time>2018-12-27T17:09:17Z</time>
      </trkpt>
      <trkpt lat="34.156930" lon="-118.379080">
        <ele>188.862</ele>
        <time>2018-12-27T17:09:37Z</time>
      </trkpt>
      <trkpt lat="34.156970" lon="-118.379100">
        <ele>188.615</ele>
        <time>2018-12-27T17:09:57Z</time>
      </trkpt>
      <trkpt lat="34.157250" lon="-118.379230">
        <ele>188.279</ele>
        <time>2018-12-27T17:10:17Z</time>
      </trkpt>
      <trkpt lat="34.157600" lon="-118.379390">
        <ele>188.952</ele>
        <time>2018-12-27T17:10:37Z</time>
      </trkpt>
      <trkpt lat="34.157900" lon="-118.379520">
        <ele>189.738</ele>
        <time>2018-12-27T17:10:57Z</time>
      </trkpt>
      <trkpt lat="34.157990" lon="-118.379570">
        <ele>189.770</ele>
        <time>2018-12-27T17:11:17Z</time>
      </trkpt>
      <trkpt lat="34.159590" lon="-118.380260">
        <ele>189.817</ele>
        <time>2018-12-27T17:11:37Z</time>
      </trkpt>
      <trkpt lat="34.160020" lon="-118.380450">
        <ele>189.808</ele>
        <time>2018-12-27T17:11:57Z</time>
      </trkpt>
      <trkpt lat="34.160180" lon="-118.380520">
        <ele>189.816</ele>
        <time>2018-12-27T17:12:17Z</time>
      </trkpt>
      <trkpt lat="34.160830" lon="-118.380790">
        <ele>189.854</ele>
        <time>2018-12-27T17:12:37Z</time>
      </trkpt>
      <trkpt lat="34.161630" lon="-118.381140">
        <ele>190.029</ele>
        <time>2018-12-27T17:12:57Z</time>
      </trkpt>
      <trkpt lat="34.162410" lon="-118.381480">
        <ele>191.748</ele>
        <time>2018-12-27T17:13:17Z</time>
      </trkpt>
      <trkpt lat="34.162730" lon="-118.381630">
        <ele>193.492</ele>
        <time>2018-12-27T17:13:37Z</time>
      </trkpt>
      <trkpt lat="34.162910" lon="-118.381720">
        <ele>194.725</ele>
        <time>2018-12-27T17:13:57Z</time>
      </trkpt>
      <trkpt lat="34.163210" lon="-118.381850">
        <ele>197.619</ele>
        <time>2018-12-27T17:14:17Z</time>
      </trkpt>
      <trkpt lat="34.163880" lon="-118.382140">
        <ele>196.542</ele>
        <time>2018-12-27T17:14:37Z</time>
      </trkpt>
      <trkpt lat="34.164660" lon="-118.382480">
        <ele>195.742</ele>
        <time>2018-12-27T17:14:57Z</time>
      </trkpt>
      <trkpt lat="34.164830" lon="-118.382550">
        <ele>195.122</ele>
        <time>2018-12-27T17:15:17Z</time>
      </trkpt>
      <trkpt lat="34.165160" lon="-118.382700">
        <ele>195.014</ele>
        <time>2018-12-27T17:15:37Z</time>
      </trkpt>
      <trkpt lat="34.165900" lon="-118.383020">
        <ele>198.108</ele>
        <time>2018-12-27T17:15:57Z</time>
      </trkpt>
      <trkpt lat="34.166320" lon="-118.383210">
        <ele>199.527</ele>
        <time>2018-12-27T17:16:17Z</time>
      </trkpt>
      <trkpt lat="34.166730" lon="-118.383380">
        <ele>201.525</ele>
        <time>2018-12-27T17:16:37Z</time>
      </trkpt>
      <trkpt lat="34.167200" lon="-118.383570">
        <ele>201.780</ele>
        <time>2018-12-27T17:16:57Z</time>
      </trkpt>
      <trkpt lat="34.167340" lon="-118.383640">
        <ele>201.539</ele>
        <time>2018-12-27T17:17:17Z</time>
      </trkpt>
      <trkpt lat="34.167450" lon="-118.383690">
        <ele>201.723</ele>
        <time>2018-12-27T17:17:37Z</time>
      </trkpt>
      <trkpt lat="34.167660" lon="-118.383800">
        <ele>202.056</ele>
        <time>2018-12-27T17:17:57Z</time>
      </trkpt>
      <trkpt lat="34.167860" lon="-118.383910">
        <ele>202.040</ele>
        <time>2018-12-27T17:18:17Z</time>
      </trkpt>
      <trkpt lat="34.168070" lon="-118.384030">
        <ele>202.013</ele>
        <time>2018-12-27T17:18:37Z</time>
      </trkpt>
      <trkpt lat="34.168230" lon="-118.384130">
        <ele>201.735</ele>
        <time>2018-12-27T17:18:57Z</time>
      </trkpt>
      <trkpt lat="34.168490" lon="-118.384310">
        <ele>200.586</ele>
        <time>2018-12-27T17:19:17Z</time>
      </trkpt>
      <trkpt lat="34.168600" lon="-118.384380">
        <ele>200.314</ele>
        <time>2018-12-27T17:19:37Z</time>
      </trkpt>
      <trkpt lat="34.168790" lon="-118.384530">
        <ele>200.808</ele>
        <time>2018-12-27T17:19:57Z</time>
      </trkpt>
      <trkpt lat="34.168900" lon="-118.384610">
        <ele>201.616</ele>
        <time>2018-12-27T17:20:17Z</time>
      </trkpt>
      <trkpt lat="34.168980" lon="-118.384680">
        <ele>202.074</ele>
        <time>2018-12-27T17:20:37Z</time>
      </trkpt>
      <trkpt lat="34.169140" lon="-118.384820">
        <ele>202.229</ele>
        <time>2018-12-27T17:20:57Z</time>
      </trkpt>
      <trkpt lat="34.169430" lon="-118.385080">
        <ele>201.998</ele>
        <time>2018-12-27T17:21:17Z</time>
      </trkpt>
      <trkpt lat="34.169530" lon="-118.385190">
        <ele>202.232</ele>
        <time>2018-12-27T17:21:37Z</time>
      </trkpt>
      <trkpt lat="34.169770" lon="-118.385440">
        <ele>202.275</ele>
        <time>2018-12-27T17:21:57Z</time>
      </trkpt>
      <trkpt lat="34.169860" lon="-118.385530">
        <ele>202.229</ele>
        <time>2018-12-27T17:22:17Z</time>
      </trkpt>
      <trkpt lat="34.169930" lon="-118.385610">
        <ele>201.942</ele>
        <time>2018-12-27T17:22:37Z</time>
      </trkpt>
      <trkpt lat="34.170140" lon="-118.385860">
        <ele>202.213</ele>
        <time>2018-12-27T17:22:57Z</time>
      </trkpt>
      <trkpt lat="34.170380" lon="-118.386150">
        <ele>202.143</ele>
        <time>2018-12-27T17:23:17Z</time>
      </trkpt>
      <trkpt lat="34.170480" lon="-118.386280">
        <ele>202.107</ele>
        <time>2018-12-27T17:23:37Z</time>
      </trkpt>
      <trkpt lat="34.170590" lon="-118.386440">
        <ele>202.008</ele>
        <time>2018-12-27T17:23:57Z</time>
      </trkpt>
      <trkpt lat="34.170710" lon="-118.386610">
        <ele>202.014</ele>
        <time>2018-12-27T17:24:17Z</time>
      </trkpt>
      <trkpt lat="34.170840" lon="-118.386790">
        <ele>202.012</ele>
        <time>2018-12-27T17:24:37Z</time>
      </trkpt>
      <trkpt lat="34.171080" lon="-118.387150">
        <ele>202.077</ele>
        <time>2018-12-27T17:24:57Z</time>
      </trkpt>
      <trkpt lat="34.171210" lon="-118.387360">
        <ele>202.036</ele>
        <time>2018-12-27T17:25:17Z</time>
      </trkpt>
      <trkpt lat="34.171500" lon="-118.387800">
        <ele>201.840</ele>
        <time>2018-12-27T17:25:37Z</time>
      </trkpt>
      <trkpt lat="34.171660" lon="-118.388030">
        <ele>201.993</ele>
        <time>2018-12-27T17:25:57Z</time>
      </trkpt>
      <trkpt lat="34.171990" lon="-118.388520">
        <ele>201.717</ele>
        <time>2018-12-27T17:26:17Z</time>
      </trkpt>
      <trkpt lat="34.172270" lon="-118.388930">
        <ele>201.590</ele>
        <time>2018-12-27T17:26:37Z</time>
      </trkpt>
      <trkpt lat="34.172350" lon="-118.389050">
        <ele>201.819</ele>
        <time>2018-12-27T17:26:57Z</time>
      </trkpt>
      <trkpt lat="34.173050" lon="-118.390090">
        <ele>202.209</ele>
        <time>2018-12-27T17:27:17Z</time>
      </trkpt>
      <trkpt lat="34.173380" lon="-118.390590">
        <ele>202.119</ele>
        <time>2018-12-27T17:27:37Z</time>
      </trkpt>
      <trkpt lat="34.173420" lon="-118.390640">
        <ele>202.108</ele>
        <time>2018-12-27T17:27:57Z</time>
      </trkpt>
      <trkpt lat="34.173550" lon="-118.390820">
        <ele>202.054</ele>
        <time>2018-12-27T17:28:17Z</time>
      </trkpt>
      <trkpt lat="34.173590" lon="-118.390900">
        <ele>202.142</ele>
        <time>2018-12-27T17:28:37Z</time>
      </trkpt>
      <trkpt lat="34.173730" lon="-118.391100">
        <ele>202.137</ele>
        <time>2018-12-27T17:28:57Z</time>
      </trkpt>
      <trkpt lat="34.173890" lon="-118.391330">
        <ele>202.146</ele>
        <time>2018-12-27T17:29:17Z</time>
      </trkpt>
      <trkpt lat="34.173920" lon="-118.391360">
        <ele>202.150</ele>
        <time>2018-12-27T17:29:37Z</time>
      </trkpt>
      <trkpt lat="34.174170" lon="-118.391660">
        <ele>202.133</ele>
        <time>2018-12-27T17:29:57Z</time>
      </trkpt>
      <trkpt lat="34.174230" lon="-118.391740">
        <ele>202.197</ele>
        <time>2018-12-27T17:30:17Z</time>
      </trkpt>
      <trkpt lat="34.174400" lon="-118.391920">
        <ele>202.150</ele>
        <time>2018-12-27T17:30:37Z</time>
      </trkpt>
      <trkpt lat="34.174530" lon="-118.392060">
        <ele>202.263</ele>
        <time>2018-12-27T17:30:57Z</time>
      </trkpt>
      <trkpt lat="34.174560" lon="-118.392100">
        <ele>202.344</ele>
        <time>2018-12-27T17:31:17Z</time>
      </trkpt>
      <trkpt lat="34.174630" lon="-118.392170">
        <ele>202.218</ele>
        <time>2018-12-27T17:31:37Z</time>
      </trkpt>
      <trkpt lat="34.174720" lon="-118.392270">
        <ele>202.208</ele>
        <time>2018-12-27T17:31:57Z</time>
      </trkpt>
      <trkpt lat="34.174830" lon="-118.392390">
        <ele>202.329</ele>
        <time>2018-12-27T17:32:17Z</time>
      </trkpt>
      <trkpt lat="34.175120" lon="-118.392640">
        <ele>202.347</ele>
        <time>2018-12-27T17:32:37Z</time>
      </trkpt>
      <trkpt lat="34.175350" lon="-118.392840">
        <ele>202.322</ele>
        <time>2018-12-27T17:32:57Z</time>
      </trkpt>
      <trkpt lat="34.175450" lon="-118.392920">
        <ele>202.491</ele>
        <time>2018-12-27T17:33:17Z</time>
      </trkpt>
      <trkpt lat="34.175670" lon="-118.393100">
        <ele>202.375</ele>
        <time>2018-12-27T17:33:37Z</time>
      </trkpt>
      <trkpt lat="34.175760" lon="-118.393160">
        <ele>202.398</ele>
        <time>2018-12-27T17:33:57Z</time>
      </trkpt>
      <trkpt lat="34.175880" lon="-118.393250">
        <ele>202.472</ele>
        <time>2018-12-27T17:34:17Z</time>
      </trkpt>
      <trkpt lat="34.176070" lon="-118.393370">
        <ele>202.455</ele>
        <time>2018-12-27T17:34:37Z</time>
      </trkpt>
      <trkpt lat="34.176210" lon="-118.393460">
        <ele>202.442</ele>
        <time>2018-12-27T17:34:57Z</time>
      </trkpt>
      <trkpt lat="34.176350" lon="-118.393550">
        <ele>202.522</ele>
        <time>2018-12-27T17:35:17Z</time>
      </trkpt>
      <trkpt lat="34.176520" lon="-118.393650">
        <ele>202.514</ele>
        <time>2018-12-27T17:35:37Z</time>
      </trkpt>
      <trkpt lat="34.176600" lon="-118.393700">
        <ele>202.508</ele>
        <time>2018-12-27T17:35:57Z</time>
      </trkpt>
      <trkpt lat="34.176880" lon="-118.393840">
        <ele>202.747</ele>
        <time>2018-12-27T17:36:17Z</time>
      </trkpt>
      <trkpt lat="34.177100" lon="-118.393940">
        <ele>203.245</ele>
        <time>2018-12-27T17:36:37Z</time>
      </trkpt>
      <trkpt lat="34.177800" lon="-118.394290">
        <ele>207.810</ele>
        <time>2018-12-27T17:36:57Z</time>
      </trkpt>
      <trkpt lat="34.177980" lon="-118.394370">
        <ele>208.289</ele>
        <time>2018-12-27T17:37:17Z</time>
      </trkpt>
      <trkpt lat="34.178160" lon="-118.394460">
        <ele>208.323</ele>
        <time>2018-12-27T17:37:37Z</time>
      </trkpt>
      <trkpt lat="34.178680" lon="-118.394710">
        <ele>208.126</ele>
        <time>2018-12-27T17:37:57Z</time>
      </trkpt>
      <trkpt lat="34.179060" lon="-118.394900">
        <ele>208.060</ele>
        <time>2018-12-27T17:38:17Z</time>
      </trkpt>
      <trkpt lat="34.179260" lon="-118.394990">
        <ele>207.753</ele>
        <time>2018-12-27T17:38:37Z</time>
      </trkpt>
      <trkpt lat="34.179540" lon="-118.395140">
        <ele>207.938</ele>
        <time>2018-12-27T17:38:57Z</time>
      </trkpt>
      <trkpt lat="34.179670" lon="-118.395220">
        <ele>208.170</ele>
        <time>2018-12-27T17:39:17Z</time>
      </trkpt>
      <trkpt lat="34.179800" lon="-118.395290">
        <ele>208.717</ele>
        <time>2018-12-27T17:39:37Z</time>
      </trkpt>
      <trkpt lat="34.179950" lon="-118.395390">
        <ele>209.208</ele>
        <time>2018-12-27T17:39:57Z</time>
      </trkpt>
      <trkpt lat="34.180380" lon="-118.395670">
        <ele>213.226</ele>
        <time>2018-12-27T17:40:17Z</time>
      </trkpt>
      <trkpt lat="34.180700" lon="-118.395910">
        <ele>214.034</ele>
        <time>2018-12-27T17:40:37Z</time>
      </trkpt>
      <trkpt lat="34.180930" lon="-118.396090">
        <ele>213.689</ele>
        <time>2018-12-27T17:40:57Z</time>
      </trkpt>
      <trkpt lat="34.181120" lon="-118.396250">
        <ele>213.448</ele>
        <time>2018-12-27T17:41:17Z</time>
      </trkpt>
      <trkpt lat="34.181470" lon="-118.396550">
        <ele>208.252</ele>
        <time>2018-12-27T17:41:37Z</time>
      </trkpt>
      <trkpt lat="34.181670" lon="-118.396750">
        <ele>213.685</ele>
        <time>2018-12-27T17:41:57Z</time>
      </trkpt>
      <trkpt lat="34.181830" lon="-118.396920">
        <ele>214.719</ele>
        <time>2018-12-27T17:42:17Z</time>
      </trkpt>
      <trkpt lat="34.182110" lon="-118.397220">
        <ele>214.752</ele>
        <time>2018-12-27T17:42:37Z</time>
      </trkpt>
      <trkpt lat="34.182390" lon="-118.397550">
        <ele>214.838</ele>
        <time>2018-12-27T17:42:57Z</time>
      </trkpt>
      <trkpt lat="34.182670" lon="-118.397900">
        <ele>214.870</ele>
        <time>2018-12-27T17:43:17Z</time>
      </trkpt>
      <trkpt lat="34.182960" lon="-118.398250">
        <ele>214.517</ele>
        <time>2018-12-27T17:43:37Z</time>
      </trkpt>
      <trkpt lat="34.183120" lon="-118.398450">
        <ele>214.808</ele>
        <time>2018-12-27T17:43:57Z</time>
      </trkpt>
      <trkpt lat="34.183500" lon="-118.398920">
        <ele>215.036</ele>
        <time>2018-12-27T17:44:17Z</time>
      </trkpt>
      <trkpt lat="34.183800" lon="-118.399280">
        <ele>215.174</ele>
        <time>2018-12-27T17:44:37Z</time>
      </trkpt>
      <trkpt lat="34.183930" lon="-118.399430">
        <ele>215.139</ele>
        <time>2018-12-27T17:44:57Z</time>
      </trkpt>
      <trkpt lat="34.184040" lon="-118.399550">
        <ele>215.128</ele>
        <time>2018-12-27T17:45:17Z</time>
      </trkpt>
      <trkpt lat="34.184140" lon="-118.399650">
        <ele>215.162</ele>
        <time>2018-12-27T17:45:37Z</time>
      </trkpt>
      <trkpt lat="34.184300" lon="-118.399820">
        <ele>215.135</ele>
        <time>2018-12-27T17:45:57Z</time>
      </trkpt>
      <trkpt lat="34.184400" lon="-118.399910">
        <ele>214.829</ele>
        <time>2018-12-27T17:46:17Z</time>
      </trkpt>
      <trkpt lat="34.184540" lon="-118.400030">
        <ele>214.852</ele>
        <time>2018-12-27T17:46:37Z</time>
      </trkpt>
      <trkpt lat="34.184570" lon="-118.400060">
        <ele>214.819</ele>
        <time>2018-12-27T17:46:57Z</time>
      </trkpt>
      <trkpt lat="34.184630" lon="-118.400110">
        <ele>214.709</ele>
        <time>2018-12-27T17:47:17Z</time>
      </trkpt>
      <trkpt lat="34.184740" lon="-118.400200">
        <ele>214.519</ele>
        <time>2018-12-27T17:47:37Z</time>
      </trkpt>
      <trkpt lat="34.184840" lon="-118.400280">
        <ele>214.508</ele>
        <time>2018-12-27T17:47:57Z</time>
      </trkpt>
      <trkpt lat="34.184960" lon="-118.400370">
        <ele>214.744</ele>
        <time>2018-12-27T17:48:17Z</time>
      </trkpt>
      <trkpt lat="34.185170" lon="-118.400520">
        <ele>214.762</ele>
        <time>2018-12-27T17:48:37Z</time>
      </trkpt>
      <trkpt lat="34.185320" lon="-118.400620">
        <ele>214.887</ele>
        <time>2018-12-27T17:48:57Z</time>
      </trkpt>
      <trkpt lat="34.185510" lon="-118.400740">
        <ele>215.126</ele>
        <time>2018-12-27T17:49:17Z</time>
      </trkpt>
      <trkpt lat="34.185580" lon="-118.400780">
        <ele>215.170</ele>
        <time>2018-12-27T17:49:37Z</time>
      </trkpt>
      <trkpt lat="34.185690" lon="-118.400850">
        <ele>215.123</ele>
        <time>2018-12-27T17:49:57Z</time>
      </trkpt>
      <trkpt lat="34.185920" lon="-118.400970">
        <ele>215.177</ele>
        <time>2018-12-27T17:50:17Z</time>
      </trkpt>
      <trkpt lat="34.186050" lon="-118.401030">
        <ele>215.130</ele>
        <time>2018-12-27T17:50:37Z</time>
      </trkpt>
      <trkpt lat="34.186270" lon="-118.401130">
        <ele>215.054</ele>
        <time>2018-12-27T17:50:57Z</time>
      </trkpt>
      <trkpt lat="34.186360" lon="-118.401170">
        <ele>214.856</ele>
        <time>2018-12-27T17:51:17Z</time>
      </trkpt>
      <trkpt lat="34.186600" lon="-118.401260">
        <ele>214.211</ele>
        <time>2018-12-27T17:51:37Z</time>
      </trkpt>
      <trkpt lat="34.186730" lon="-118.401300">
        <ele>214.108</ele>
        <time>2018-12-27T17:51:57Z</time>
      </trkpt>
      <trkpt lat="34.186880" lon="-118.401350">
        <ele>214.338</ele>
        <time>2018-12-27T17:52:17Z</time>
      </trkpt>
      <trkpt lat="34.187030" lon="-118.401390">
        <ele>214.936</ele>
        <time>2018-12-27T17:52:37Z</time>
      </trkpt>
      <trkpt lat="34.187160" lon="-118.401430">
        <ele>215.431</ele>
        <time>2018-12-27T17:52:57Z</time>
      </trkpt>
      <trkpt lat="34.187350" lon="-118.401470">
        <ele>216.520</ele>
        <time>2018-12-27T17:53:17Z</time>
      </trkpt>
      <trkpt lat="34.187580" lon="-118.401520">
        <ele>218.474</ele>
        <time>2018-12-27T17:53:37Z</time>
      </trkpt>
      <trkpt lat="34.187810" lon="-118.401550">
        <ele>219.967</ele>
        <time>2018-12-27T17:53:57Z</time>
      </trkpt>
      <trkpt lat="34.188150" lon="-118.401600">
        <ele>220.411</ele>
        <time>2018-12-27T17:54:17Z</time>
      </trkpt>
      <trkpt lat="34.188860" lon="-118.401690">
        <ele>220.474</ele>
        <time>2018-12-27T17:54:37Z</time>
      </trkpt>
      <trkpt lat="34.189300" lon="-118.401750">
        <ele>220.428</ele>
        <time>2018-12-27T17:54:57Z</time>
      </trkpt>
      <trkpt lat="34.189780" lon="-118.401810">
        <ele>220.689</ele>
        <time>2018-12-27T17:55:17Z</time>
      </trkpt>
      <trkpt lat="34.190200" lon="-118.401870">
        <ele>220.517</ele>
        <time>2018-12-27T17:55:37Z</time>
      </trkpt>
      <trkpt lat="34.190620" lon="-118.401930">
        <ele>220.508</ele>
        <time>2018-12-27T17:55:57Z</time>
      </trkpt>
      <trkpt lat="34.191070" lon="-118.401980">
        <ele>220.295</ele>
        <time>2018-12-27T17:56:17Z</time>
      </trkpt>
      <trkpt lat="34.192000" lon="-118.402100">
        <ele>220.313</ele>
        <time>2018-12-27T17:56:37Z</time>
      </trkpt>
      <trkpt lat="34.192130" lon="-118.402120">
        <ele>220.338</ele>
        <time>2018-12-27T17:56:57Z</time>
      </trkpt>
      <trkpt lat="34.192400" lon="-118.402160">
        <ele>220.387</ele>
        <time>2018-12-27T17:57:17Z</time>
      </trkpt>
      <trkpt lat="34.192650" lon="-118.402190">
        <ele>220.351</ele>
        <time>2018-12-27T17:57:37Z</time>
      </trkpt>
      <trkpt lat="34.192980" lon="-118.402230">
        <ele>220.334</ele>
        <time>2018-12-27T17:57:57Z</time>
      </trkpt>
      <trkpt lat="34.193290" lon="-118.402280">
        <ele>220.348</ele>
        <time>2018-12-27T17:58:17Z</time>
      </trkpt>
      <trkpt lat="34.193820" lon="-118.402350">
        <ele>220.351</ele>
        <time>2018-12-27T17:58:37Z</time>
      </trkpt>
      <trkpt lat="34.194020" lon="-118.402370">
        <ele>220.425</ele>
        <time>2018-12-27T17:58:57Z</time>
      </trkpt>
      <trkpt lat="34.194220" lon="-118.402400">
        <ele>220.626</ele>
        <time>2018-12-27T17:59:17Z</time>
      </trkpt>
      <trkpt lat="34.194480" lon="-118.402430">
        <ele>220.708</ele>
        <time>2018-12-27T17:59:37Z</time>
      </trkpt>
      <trkpt lat="34.194860" lon="-118.402480">
        <ele>220.708</ele>
        <time>2018-12-27T17:59:57Z</time>
      </trkpt>
      <trkpt lat="34.195110" lon="-118.402520">
        <ele>220.775</ele>
        <time>2018-12-27T18:00:17Z</time>
      </trkpt>
      <trkpt lat="34.195880" lon="-118.402620">
        <ele>221.283</ele>
        <time>2018-12-27T18:00:37Z</time>
      </trkpt>
      <trkpt lat="34.196010" lon="-118.402630">
        <ele>221.438</ele>
        <time>2018-12-27T18:00:57Z</time>
      </trkpt>
      <trkpt lat="34.197120" lon="-118.402780">
        <ele>222.487</ele>
        <time>2018-12-27T18:01:17Z</time>
      </trkpt>
      <trkpt lat="34.197850" lon="-118.402880">
        <ele>223.291</ele>
        <time>2018-12-27T18:01:37Z</time>
      </trkpt>
      <trkpt lat="34.198410" lon="-118.402950">
        <ele>223.824</ele>
        <time>2018-12-27T18:01:57Z</time>
      </trkpt>
      <trkpt lat="34.198720" lon="-118.402990">
        <ele>224.178</ele>
        <time>2018-12-27T18:02:17Z</time>
      </trkpt>
      <trkpt lat="34.199200" lon="-118.403060">
        <ele>224.531</ele>
        <time>2018-12-27T18:02:37Z</time>
      </trkpt>
      <trkpt lat="34.199580" lon="-118.403110">
        <ele>224.823</ele>
        <time>2018-12-27T18:02:57Z</time>
      </trkpt>
      <trkpt lat="34.199960" lon="-118.403170">
        <ele>225.283</ele>
        <time>2018-12-27T18:03:17Z</time>
      </trkpt>
      <trkpt lat="34.200310" lon="-118.403250">
        <ele>225.511</ele>
        <time>2018-12-27T18:03:37Z</time>
      </trkpt>
      <trkpt lat="34.200900" lon="-118.403420">
        <ele>225.908</ele>
        <time>2018-12-27T18:03:57Z</time>
      </trkpt>
      <trkpt lat="34.201020" lon="-118.403460">
        <ele>226.055</ele>
        <time>2018-12-27T18:04:17Z</time>
      </trkpt>
      <trkpt lat="34.201120" lon="-118.403500">
        <ele>226.133</ele>
        <time>2018-12-27T18:04:37Z</time>
      </trkpt>
      <trkpt lat="34.201400" lon="-118.403610">
        <ele>226.278</ele>
        <time>2018-12-27T18:04:57Z</time>
      </trkpt>
      <trkpt lat="34.201480" lon="-118.403640">
        <ele>226.287</ele>
        <time>2018-12-27T18:05:17Z</time>
      </trkpt>
      <trkpt lat="34.201690" lon="-118.403730">
        <ele>226.221</ele>
        <time>2018-12-27T18:05:37Z</time>
      </trkpt>
      <trkpt lat="34.201920" lon="-118.403840">
        <ele>226.474</ele>
        <time>2018-12-27T18:05:57Z</time>
      </trkpt>
      <trkpt lat="34.202230" lon="-118.403990">
        <ele>226.868</ele>
        <time>2018-12-27T18:06:17Z</time>
      </trkpt>
      <trkpt lat="34.203280" lon="-118.404520">
        <ele>228.091</ele>
        <time>2018-12-27T18:06:37Z</time>
      </trkpt>
      <trkpt lat="34.203470" lon="-118.404610">
        <ele>228.161</ele>
        <time>2018-12-27T18:06:57Z</time>
      </trkpt>
      <trkpt lat="34.203500" lon="-118.404620">
        <ele>228.121</ele>
        <time>2018-12-27T18:07:17Z</time>
      </trkpt>
      <trkpt lat="34.203530" lon="-118.404630">
        <ele>228.113</ele>
        <time>2018-12-27T18:07:37Z</time>
      </trkpt>
      <trkpt lat="34.203550" lon="-118.404640">
        <ele>228.008</ele>
        <time>2018-12-27T18:07:57Z</time>
      </trkpt>
      <trkpt lat="34.203600" lon="-118.404660">
        <ele>228.089</ele>
        <time>2018-12-27T18:08:17Z</time>
      </trkpt>
      <trkpt lat="34.203650" lon="-118.404680">
        <ele>228.017</ele>
        <time>2018-12-27T18:08:37Z</time>
      </trkpt>
      <trkpt lat="34.203680" lon="-118.404700">
        <ele>228.032</ele>
        <time>2018-12-27T18:08:57Z</time>
      </trkpt>
      <trkpt lat="34.204200" lon="-118.404950">
        <ele>227.581</ele>
        <time>2018-12-27T18:09:17Z</time>
      </trkpt>
      <trkpt lat="34.204540" lon="-118.405120">
        <ele>227.595</ele>
        <time>2018-12-27T18:09:37Z</time>
      </trkpt>
      <trkpt lat="34.204760" lon="-118.405220">
        <ele>227.798</ele>
        <time>2018-12-27T18:09:57Z</time>
      </trkpt>
      <trkpt lat="34.204890" lon="-118.405280">
        <ele>227.822</ele>
        <time>2018-12-27T18:10:17Z</time>
      </trkpt>
      <trkpt lat="34.204930" lon="-118.405300">
        <ele>227.875</ele>
        <time>2018-12-27T18:10:37Z</time>
      </trkpt>
      <trkpt lat="34.204980" lon="-118.405330">
        <ele>227.979</ele>
        <time>2018-12-27T18:10:57Z</time>
      </trkpt>
      <trkpt lat="34.205010" lon="-118.405350">
        <ele>227.905</ele>
        <time>2018-12-27T18:11:17Z</time>
      </trkpt>
      <trkpt lat="34.205030" lon="-118.405360">
        <ele>227.925</ele>
        <time>2018-12-27T18:11:37Z</time>
      </trkpt>
      <trkpt lat="34.205440" lon="-118.405540">
        <ele>228.408</ele>
        <time>2018-12-27T18:11:57Z</time>
      </trkpt>
      <trkpt lat="34.205680" lon="-118.405630">
        <ele>229.070</ele>
        <time>2018-12-27T18:12:17Z</time>
      </trkpt>
      <trkpt lat="34.206180" lon="-118.405810">
        <ele>230.618</ele>
        <time>2018-12-27T18:12:37Z</time>
      </trkpt>
      <trkpt lat="34.206710" lon="-118.405990">
        <ele>232.143</ele>
        <time>2018-12-27T18:12:57Z</time>
      </trkpt>
      <trkpt lat="34.207540" lon="-118.406230">
        <ele>233.532</ele>
        <time>2018-12-27T18:13:17Z</time>
      </trkpt>
      <trkpt lat="34.207800" lon="-118.406300">
        <ele>233.926</ele>
        <time>2018-12-27T18:13:37Z</time>
      </trkpt>
      <trkpt lat="34.208250" lon="-118.406420">
        <ele>234.389</ele>
        <time>2018-12-27T18:13:57Z</time>
      </trkpt>
      <trkpt lat="34.209170" lon="-118.406670">
        <ele>235.083</ele>
        <time>2018-12-27T18:14:17Z</time>
      </trkpt>
      <trkpt lat="34.210040" lon="-118.406910">
        <ele>235.346</ele>
        <time>2018-12-27T18:14:37Z</time>
      </trkpt>
      <trkpt lat="34.210820" lon="-118.407120">
        <ele>235.769</ele>
        <time>2018-12-27T18:14:57Z</time>
      </trkpt>
      <trkpt lat="34.210980" lon="-118.407160">
        <ele>236.204</ele>
        <time>2018-12-27T18:15:17Z</time>
      </trkpt>
      <trkpt lat="34.211550" lon="-118.407310">
        <ele>237.824</ele>
        <time>2018-12-27T18:15:37Z</time>
      </trkpt>
      <trkpt lat="34.212490" lon="-118.407570">
        <ele>238.508</ele>
        <time>2018-12-27T18:15:57Z</time>
      </trkpt>
      <trkpt lat="34.212960" lon="-118.407700">
        <ele>239.439</ele>
        <time>2018-12-27T18:16:17Z</time>
      </trkpt>
      <trkpt lat="34.213780" lon="-118.407920">
        <ele>241.657</ele>
        <time>2018-12-27T18:16:37Z</time>
      </trkpt>
      <trkpt lat="34.214430" lon="-118.408100">
        <ele>241.852</ele>
        <time>2018-12-27T18:16:57Z</time>
      </trkpt>
      <trkpt lat="34.215110" lon="-118.408280">
        <ele>242.871</ele>
        <time>2018-12-27T18:17:17Z</time>
      </trkpt>
      <trkpt lat="34.215580" lon="-118.408410">
        <ele>244.015</ele>
        <time>2018-12-27T18:17:37Z</time>
      </trkpt>
      <trkpt lat="34.216040" lon="-118.408540">
        <ele>244.848</ele>
        <time>2018-12-27T18:17:57Z</time>
      </trkpt>
      <trkpt lat="34.216380" lon="-118.408620">
        <ele>244.982</ele>
        <time>2018-12-27T18:18:17Z</time>
      </trkpt>
      <trkpt lat="34.216820" lon="-118.408740">
        <ele>245.065</ele>
        <time>2018-12-27T18:18:37Z</time>
      </trkpt>
      <trkpt lat="34.217030" lon="-118.408800">
        <ele>245.065</ele>
        <time>2018-12-27T18:18:57Z</time>
      </trkpt>
      <trkpt lat="34.217800" lon="-118.409010">
        <ele>245.368</ele>
        <time>2018-12-27T18:19:17Z</time>
      </trkpt>
      <trkpt lat="34.218410" lon="-118.409180">
        <ele>246.114</ele>
        <time>2018-12-27T18:19:37Z</time>
      </trkpt>
      <trkpt lat="34.218500" lon="-118.409210">
        <ele>246.208</ele>
        <time>2018-12-27T18:19:57Z</time>
      </trkpt>
      <trkpt lat="34.218600" lon="-118.409230">
        <ele>246.459</ele>
        <time>2018-12-27T18:20:17Z</time>
      </trkpt>
      <trkpt lat="34.219960" lon="-118.409620">
        <ele>247.527</ele>
        <time>2018-12-27T18:20:37Z</time>
      </trkpt>
      <trkpt lat="34.220080" lon="-118.409650">
        <ele>247.732</ele>
        <time>2018-12-27T18:20:57Z</time>
      </trkpt>
      <trkpt lat="34.221240" lon="-118.409960">
        <ele>249.651</ele>
        <time>2018-12-27T18:21:17Z</time>
      </trkpt>
      <trkpt lat="34.221260" lon="-118.409960">
        <ele>249.735</ele>
        <time>2018-12-27T18:21:37Z</time>
      </trkpt>
      <trkpt lat="34.221590" lon="-118.410050">
        <ele>250.368</ele>
        <time>2018-12-27T18:21:57Z</time>
      </trkpt>
      <trkpt lat="34.221650" lon="-118.410070">
        <ele>250.422</ele>
        <time>2018-12-27T18:22:17Z</time>
      </trkpt>
      <trkpt lat="34.221700" lon="-118.410080">
        <ele>250.455</ele>
        <time>2018-12-27T18:22:37Z</time>
      </trkpt>
      <trkpt lat="34.221990" lon="-118.410170">
        <ele>250.792</ele>
        <time>2018-12-27T18:22:57Z</time>
      </trkpt>
      <trkpt lat="34.222660" lon="-118.410350">
        <ele>251.073</ele>
        <time>2018-12-27T18:23:17Z</time>
      </trkpt>
      <trkpt lat="34.223270" lon="-118.410510">
        <ele>251.220</ele>
        <time>2018-12-27T18:23:37Z</time>
      </trkpt>
      <trkpt lat="34.223920" lon="-118.410690">
        <ele>251.108</ele>
        <time>2018-12-27T18:23:57Z</time>
      </trkpt>
      <trkpt lat="34.224180" lon="-118.410760">
        <ele>251.012</ele>
        <time>2018-12-27T18:24:17Z</time>
      </trkpt>
      <trkpt lat="34.224270" lon="-118.410770">
        <ele>251.050</ele>
        <time>2018-12-27T18:24:37Z</time>
      </trkpt>
      <trkpt lat="34.224350" lon="-118.410780">
        <ele>251.095</ele>
        <time>2018-12-27T18:24:57Z</time>
      </trkpt>
      <trkpt lat="34.224670" lon="-118.410850">
        <ele>251.184</ele>
        <time>2018-12-27T18:25:17Z</time>
      </trkpt>
      <trkpt lat="34.224940" lon="-118.410890">
        <ele>251.218</ele>
        <time>2018-12-27T18:25:37Z</time>
      </trkpt>
      <trkpt lat="34.225300" lon="-118.410920">
        <ele>251.361</ele>
        <time>2018-12-27T18:25:57Z</time>
      </trkpt>
      <trkpt lat="34.225420" lon="-118.410920">
        <ele>251.375</ele>
        <time>2018-12-27T18:26:17Z</time>
      </trkpt>
      <trkpt lat="34.225470" lon="-118.410920">
        <ele>251.498</ele>
        <time>2018-12-27T18:26:37Z</time>
      </trkpt>
      <trkpt lat="34.225730" lon="-118.410920">
        <ele>251.582</ele>
        <time>2018-12-27T18:26:57Z</time>
      </trkpt>
      <trkpt lat="34.225880" lon="-118.410920">
        <ele>251.543</ele>
        <time>2018-12-27T18:27:17Z</time>
      </trkpt>
      <trkpt lat="34.225980" lon="-118.410920">
        <ele>251.417</ele>
        <time>2018-12-27T18:27:37Z</time>
      </trkpt>
      <trkpt lat="34.226280" lon="-118.410890">
        <ele>251.508</ele>
        <time>2018-12-27T18:27:57Z</time>
      </trkpt>
      <trkpt lat="34.226450" lon="-118.410860">
        <ele>251.941</ele>
        <time>2018-12-27T18:28:17Z</time>
      </trkpt>
      <trkpt lat="34.226660" lon="-118.410820">
        <ele>252.849</ele>
        <time>2018-12-27T18:28:37Z</time>
      </trkpt>
      <trkpt lat="34.226860" lon="-118.410780">
        <ele>253.754</ele>
        <time>2018-12-27T18:28:57Z</time>
      </trkpt>
      <trkpt lat="34.227030" lon="-118.410740">
        <ele>254.593</ele>
        <time>2018-12-27T18:29:17Z</time>
      </trkpt>
      <trkpt lat="34.227300" lon="-118.410660">
        <ele>254.987</ele>
        <time>2018-12-27T18:29:37Z</time>
      </trkpt>
      <trkpt lat="34.227500" lon="-118.410590">
        <ele>255.460</ele>
        <time>2018-12-27T18:29:57Z</time>
      </trkpt>
      <trkpt lat="34.227620" lon="-118.410540">
        <ele>256.264</ele>
        <time>2018-12-27T18:30:17Z</time>
      </trkpt>
      <trkpt lat="34.227690" lon="-118.410510">
        <ele>256.437</ele>
        <time>2018-12-27T18:30:37Z</time>
      </trkpt>
      <trkpt lat="34.227820" lon="-118.410470">
        <ele>256.613</ele>
        <time>2018-12-27T18:30:57Z</time>
      </trkpt>
      <trkpt lat="34.227870" lon="-118.410440">
        <ele>256.843</ele>
        <time>2018-12-27T18:31:17Z</time>
      </trkpt>
      <trkpt lat="34.228060" lon="-118.410350">
        <ele>257.007</ele>
        <time>2018-12-27T18:31:37Z</time>
      </trkpt>
      <trkpt lat="34.228240" lon="-118.410250">
        <ele>257.108</ele>
        <time>2018-12-27T18:31:57Z</time>
      </trkpt>
      <trkpt lat="34.228242" lon="-118.410255">
        <ele>257.194</ele>
        <time>2018-12-27T18:32:17Z</time>
      </trkpt>
      <trkpt lat="34.228420" lon="-118.410180">
        <ele>257.152</ele>
        <time>2018-12-27T18:32:37Z</time>
      </trkpt>
      <trkpt lat="34.229320" lon="-118.409810">
        <ele>257.647</ele>
        <time>2018-12-27T18:32:57Z</time>
      </trkpt>
      <trkpt lat="34.229660" lon="-118.409660">
        <ele>257.856</ele>
        <time>2018-12-27T18:33:17Z</time>
      </trkpt>
      <trkpt lat="34.229880" lon="-118.409570">
        <ele>258.090</ele>
        <time>2018-12-27T18:33:37Z</time>
      </trkpt>
      <trkpt lat="34.230010" lon="-118.409510">
        <ele>258.153</ele>
        <time>2018-12-27T18:33:57Z</time>
      </trkpt>
      <trkpt lat="34.230150" lon="-118.409460">
        <ele>258.287</ele>
        <time>2018-12-27T18:34:17Z</time>
      </trkpt>
      <trkpt lat="34.230320" lon="-118.409410">
        <ele>258.570</ele>
        <time>2018-12-27T18:34:37Z</time>
      </trkpt>
      <trkpt lat="34.230680" lon="-118.409310">
        <ele>259.053</ele>
        <time>2018-12-27T18:34:57Z</time>
      </trkpt>
      <trkpt lat="34.230910" lon="-118.409270">
        <ele>260.604</ele>
        <time>2018-12-27T18:35:17Z</time>
      </trkpt>
      <trkpt lat="34.231050" lon="-118.409260">
        <ele>261.514</ele>
        <time>2018-12-27T18:35:37Z</time>
      </trkpt>
      <trkpt lat="34.231090" lon="-118.409250">
        <ele>261.608</ele>
        <time>2018-12-27T18:35:57Z</time>
      </trkpt>
      <trkpt lat="34.231220" lon="-118.409240">
        <ele>262.298</ele>
        <time>2018-12-27T18:36:17Z</time>
      </trkpt>
      <trkpt lat="34.231510" lon="-118.409230">
        <ele>262.046</ele>
        <time>2018-12-27T18:36:37Z</time>
      </trkpt>
      <trkpt lat="34.231730" lon="-118.409250">
        <ele>262.271</ele>
        <time>2018-12-27T18:36:57Z</time>
      </trkpt>
      <trkpt lat="34.231920" lon="-118.409260">
        <ele>262.330</ele>
        <time>2018-12-27T18:37:17Z</time>
      </trkpt>
      <trkpt lat="34.232100" lon="-118.409290">
        <ele>262.644</ele>
        <time>2018-12-27T18:37:37Z</time>
      </trkpt>
      <trkpt lat="34.232250" lon="-118.409310">
        <ele>263.077</ele>
        <time>2018-12-27T18:37:57Z</time>
      </trkpt>
      <trkpt lat="34.232440" lon="-118.409350">
        <ele>263.331</ele>
        <time>2018-12-27T18:38:17Z</time>
      </trkpt>
      <trkpt lat="34.232520" lon="-118.409380">
        <ele>263.164</ele>
        <time>2018-12-27T18:38:37Z</time>
      </trkpt>
      <trkpt lat="34.232630" lon="-118.409410">
        <ele>262.922</ele>
        <time>2018-12-27T18:38:57Z</time>
      </trkpt>
      <trkpt lat="34.232680" lon="-118.409430">
        <ele>262.962</ele>
        <time>2018-12-27T18:39:17Z</time>
      </trkpt>
      <trkpt lat="34.232780" lon="-118.409470">
        <ele>262.908</ele>
        <time>2018-12-27T18:39:37Z</time>
      </trkpt>
      <trkpt lat="34.232800" lon="-118.409470">
        <ele>262.908</ele>
        <time>2018-12-27T18:39:57Z</time>
      </trkpt>
      <trkpt lat="34.232810" lon="-118.409480">
        <ele>262.975</ele>
        <time>2018-12-27T18:40:17Z</time>
      </trkpt>
      <trkpt lat="34.232880" lon="-118.409500">
        <ele>262.993</ele>
        <time>2018-12-27T18:40:37Z</time>
      </trkpt>
      <trkpt lat="34.233050" lon="-118.409570">
        <ele>263.098</ele>
        <time>2018-12-27T18:40:57Z</time>
      </trkpt>
      <trkpt lat="34.233470" lon="-118.409790">
        <ele>261.947</ele>
        <time>2018-12-27T18:41:17Z</time>
      </trkpt>
      <trkpt lat="34.233700" lon="-118.409940">
        <ele>267.421</ele>
        <time>2018-12-27T18:41:37Z</time>
      </trkpt>
      <trkpt lat="34.233730" lon="-118.409950">
        <ele>267.814</ele>
        <time>2018-12-27T18:41:57Z</time>
      </trkpt>
      <trkpt lat="34.233940" lon="-118.410110">
        <ele>268.468</ele>
        <time>2018-12-27T18:42:17Z</time>
      </trkpt>
      <trkpt lat="34.234080" lon="-118.410230">
        <ele>268.571</ele>
        <time>2018-12-27T18:42:37Z</time>
      </trkpt>
      <trkpt lat="34.234220" lon="-118.410360">
        <ele>268.624</ele>
        <time>2018-12-27T18:42:57Z</time>
      </trkpt>
      <trkpt lat="34.234430" lon="-118.410570">
        <ele>268.204</ele>
        <time>2018-12-27T18:43:17Z</time>
      </trkpt>
      <trkpt lat="34.234610" lon="-118.410770">
        <ele>267.214</ele>
        <time>2018-12-27T18:43:37Z</time>
      </trkpt>
      <trkpt lat="34.235020" lon="-118.411270">
        <ele>264.408</ele>
        <time>2018-12-27T18:43:57Z</time>
      </trkpt>
      <trkpt lat="34.235340" lon="-118.411650">
        <ele>264.015</ele>
        <time>2018-12-27T18:44:17Z</time>
      </trkpt>
      <trkpt lat="34.235500" lon="-118.411840">
        <ele>264.133</ele>
        <time>2018-12-27T18:44:37Z</time>
      </trkpt>
      <trkpt lat="34.236100" lon="-118.412560">
        <ele>265.628</ele>
        <time>2018-12-27T18:44:57Z</time>
      </trkpt>
      <trkpt lat="34.236670" lon="-118.413260">
        <ele>268.067</ele>
        <time>2018-12-27T18:45:17Z</time>
      </trkpt>
      <trkpt lat="34.236900" lon="-118.413540">
        <ele>268.971</ele>
        <time>2018-12-27T18:45:37Z</time>
      </trkpt>
      <trkpt lat="34.236950" lon="-118.413600">
        <ele>268.964</ele>
        <time>2018-12-27T18:45:57Z</time>
      </trkpt>
      <trkpt lat="34.237000" lon="-118.413660">
        <ele>268.968</ele>
        <time>2018-12-27T18:46:17Z</time>
      </trkpt>
      <trkpt lat="34.237350" lon="-118.414070">
        <ele>269.151</ele>
        <time>2018-12-27T18:46:37Z</time>
      </trkpt>
      <trkpt lat="34.237580" lon="-118.414330">
        <ele>269.274</ele>
        <time>2018-12-27T18:46:57Z</time>
      </trkpt>
      <trkpt lat="34.237820" lon="-118.414600">
        <ele>269.556</ele>
        <time>2018-12-27T18:47:17Z</time>
      </trkpt>
      <trkpt lat="34.237980" lon="-118.414780">
        <ele>270.121</ele>
        <time>2018-12-27T18:47:37Z</time>
      </trkpt>
      <trkpt lat="34.238120" lon="-118.414930">
        <ele>270.308</ele>
        <time>2018-12-27T18:47:57Z</time>
      </trkpt>
      <trkpt lat="34.238180" lon="-118.415000">
        <ele>270.880</ele>
        <time>2018-12-27T18:48:17Z</time>
      </trkpt>
      <trkpt lat="34.238200" lon="-118.415030">
        <ele>271.198</ele>
        <time>2018-12-27T18:48:37Z</time>
      </trkpt>
      <trkpt lat="34.238220" lon="-118.415070">
        <ele>271.573</ele>
        <time>2018-12-27T18:48:57Z</time>
      </trkpt>
      <trkpt lat="34.238320" lon="-118.415260">
        <ele>273.222</ele>
        <time>2018-12-27T18:49:17Z</time>
      </trkpt>
      <trkpt lat="34.238360" lon="-118.415360">
        <ele>274.176</ele>
        <time>2018-12-27T18:49:37Z</time>
      </trkpt>
      <trkpt lat="34.238357" lon="-118.415365">
        <ele>274.229</ele>
        <time>2018-12-27T18:49:57Z</time>
      </trkpt>
      <trkpt lat="34.238680" lon="-118.415700">
        <ele>275.043</ele>
        <time>2018-12-27T18:50:17Z</time>
      </trkpt>
      <trkpt lat="34.239020" lon="-118.416050">
        <ele>274.846</ele>
        <time>2018-12-27T18:50:37Z</time>
      </trkpt>
      <trkpt lat="34.239380" lon="-118.416450">
        <ele>275.167</ele>
        <time>2018-12-27T18:50:57Z</time>
      </trkpt>
      <trkpt lat="34.239690" lon="-118.416770">
        <ele>275.081</ele>
        <time>2018-12-27T18:51:17Z</time>
      </trkpt>
      <trkpt lat="34.240070" lon="-118.417190">
        <ele>275.019</ele>
        <time>2018-12-27T18:51:37Z</time>
      </trkpt>
      <trkpt lat="34.240690" lon="-118.417850">
        <ele>275.108</ele>
        <time>2018-12-27T18:51:57Z</time>
      </trkpt>
      <trkpt lat="34.241470" lon="-118.418680">
        <ele>275.579</ele>
        <time>2018-12-27T18:52:17Z</time>
      </trkpt>
      <trkpt lat="34.241710" lon="-118.418950">
        <ele>275.757</ele>
        <time>2018-12-27T18:52:37Z</time>
      </trkpt>
      <trkpt lat="34.241970" lon="-118.419210">
        <ele>275.992</ele>
        <time>2018-12-27T18:52:57Z</time>
      </trkpt>
      <trkpt lat="34.242350" lon="-118.419610">
        <ele>276.981</ele>
        <time>2018-12-27T18:53:17Z</time>
      </trkpt>
      <trkpt lat="34.242580" lon="-118.419870">
        <ele>279.315</ele>
        <time>2018-12-27T18:53:37Z</time>
      </trkpt>
      <trkpt lat="34.242770" lon="-118.420070">
        <ele>280.678</ele>
        <time>2018-12-27T18:53:57Z</time>
      </trkpt>
      <trkpt lat="34.243150" lon="-118.420470">
        <ele>281.792</ele>
        <time>2018-12-27T18:54:17Z</time>
      </trkpt>
      <trkpt lat="34.243620" lon="-118.420970">
        <ele>281.595</ele>
        <time>2018-12-27T18:54:37Z</time>
      </trkpt>
      <trkpt lat="34.244020" lon="-118.421390">
        <ele>281.559</ele>
        <time>2018-12-27T18:54:57Z</time>
      </trkpt>
      <trkpt lat="34.244570" lon="-118.421980">
        <ele>281.203</ele>
        <time>2018-12-27T18:55:17Z</time>
      </trkpt>
      <trkpt lat="34.244660" lon="-118.422070">
        <ele>281.223</ele>
        <time>2018-12-27T18:55:37Z</time>
      </trkpt>
      <trkpt lat="34.244750" lon="-118.422160">
        <ele>281.108</ele>
        <time>2018-12-27T18:55:57Z</time>
      </trkpt>
      <trkpt lat="34.244930" lon="-118.422360">
        <ele>281.098</ele>
        <time>2018-12-27T18:56:17Z</time>
      </trkpt>
      <trkpt lat="34.245050" lon="-118.422470">
        <ele>281.126</ele>
        <time>2018-12-27T18:56:37Z</time>
      </trkpt>
      <trkpt lat="34.245150" lon="-118.422550">
        <ele>281.251</ele>
        <time>2018-12-27T18:56:57Z</time>
      </trkpt>
      <trkpt lat="34.245250" lon="-118.422650">
        <ele>281.360</ele>
        <time>2018-12-27T18:57:17Z</time>
      </trkpt>
      <trkpt lat="34.245530" lon="-118.422960">
        <ele>281.554</ele>
        <time>2018-12-27T18:57:37Z</time>
      </trkpt>
      <trkpt lat="34.245730" lon="-118.423150">
        <ele>281.567</ele>
        <time>2018-12-27T18:57:57Z</time>
      </trkpt>
      <trkpt lat="34.245910" lon="-118.423370">
        <ele>281.631</ele>
        <time>2018-12-27T18:58:17Z</time>
      </trkpt>
      <trkpt lat="34.246120" lon="-118.423600">
        <ele>281.744</ele>
        <time>2018-12-27T18:58:37Z</time>
      </trkpt>
      <trkpt lat="34.246400" lon="-118.423900">
        <ele>282.058</ele>
        <time>2018-12-27T18:58:57Z</time>
      </trkpt>
      <trkpt lat="34.246410" lon="-118.423910">
        <ele>282.052</ele>
        <time>2018-12-27T18:59:17Z</time>
      </trkpt>
      <trkpt lat="34.246510" lon="-118.424010">
        <ele>282.117</ele>
        <time>2018-12-27T18:59:37Z</time>
      </trkpt>
      <trkpt lat="34.246800" lon="-118.424320">
        <ele>282.208</ele>
        <time>2018-12-27T18:59:57Z</time>
      </trkpt>
      <trkpt lat="34.247180" lon="-118.424710">
        <ele>282.768</ele>
        <time>2018-12-27T19:00:17Z</time>
      </trkpt>
      <trkpt lat="34.247410" lon="-118.424960">
        <ele>283.316</ele>
        <time>2018-12-27T19:00:37Z</time>
      </trkpt>
      <trkpt lat="34.247490" lon="-118.425050">
        <ele>283.481</ele>
        <time>2018-12-27T19:00:57Z</time>
      </trkpt>
      <trkpt lat="34.247880" lon="-118.425470">
        <ele>286.440</ele>
        <time>2018-12-27T19:01:17Z</time>
      </trkpt>
      <trkpt lat="34.248080" lon="-118.425680">
        <ele>287.244</ele>
        <time>2018-12-27T19:01:37Z</time>
      </trkpt>
      <trkpt lat="34.249160" lon="-118.426820">
        <ele>288.127</ele>
        <time>2018-12-27T19:01:57Z</time>
      </trkpt>
      <trkpt lat="34.249630" lon="-118.427320">
        <ele>287.531</ele>
        <time>2018-12-27T19:02:17Z</time>
      </trkpt>
      <trkpt lat="34.250060" lon="-118.427780">
        <ele>287.824</ele>
        <time>2018-12-27T19:02:37Z</time>
      </trkpt>
      <trkpt lat="34.250520" lon="-118.428250">
        <ele>287.486</ele>
        <time>2018-12-27T19:02:57Z</time>
      </trkpt>
      <trkpt lat="34.250710" lon="-118.428470">
        <ele>287.460</ele>
        <time>2018-12-27T19:03:17Z</time>
      </trkpt>
      <trkpt lat="34.250790" lon="-118.428550">
        <ele>287.426</ele>
        <time>2018-12-27T19:03:37Z</time>
      </trkpt>
      <trkpt lat="34.250860" lon="-118.428630">
        <ele>287.408</ele>
        <time>2018-12-27T19:03:57Z</time>
      </trkpt>
      <trkpt lat="34.252130" lon="-118.429970">
        <ele>287.391</ele>
        <time>2018-12-27T19:04:17Z</time>
      </trkpt>
      <trkpt lat="34.252630" lon="-118.430510">
        <ele>287.389</ele>
        <time>2018-12-27T19:04:37Z</time>
      </trkpt>
      <trkpt lat="34.253040" lon="-118.430960">
        <ele>287.374</ele>
        <time>2018-12-27T19:04:57Z</time>
      </trkpt>
      <trkpt lat="34.253520" lon="-118.431470">
        <ele>287.443</ele>
        <time>2018-12-27T19:05:17Z</time>
      </trkpt>
      <trkpt lat="34.253770" lon="-118.431740">
        <ele>287.487</ele>
        <time>2018-12-27T19:05:37Z</time>
      </trkpt>
      <trkpt lat="34.254100" lon="-118.432090">
        <ele>287.440</ele>
        <time>2018-12-27T19:05:57Z</time>
      </trkpt>
      <trkpt lat="34.254710" lon="-118.432760">
        <ele>287.424</ele>
        <time>2018-12-27T19:06:17Z</time>
      </trkpt>
      <trkpt lat="34.254900" lon="-118.432960">
        <ele>287.487</ele>
        <time>2018-12-27T19:06:37Z</time>
      </trkpt>
      <trkpt lat="34.254910" lon="-118.432960">
        <ele>287.467</ele>
        <time>2018-12-27T19:06:57Z</time>
      </trkpt>
      <trkpt lat="34.255320" lon="-118.433380">
        <ele>287.581</ele>
        <time>2018-12-27T19:07:17Z</time>
      </trkpt>
      <trkpt lat="34.256590" lon="-118.434720">
        <ele>293.519</ele>
        <time>2018-12-27T19:07:37Z</time>
      </trkpt>
      <trkpt lat="34.256720" lon="-118.434860">
        <ele>292.708</ele>
        <time>2018-12-27T19:07:57Z</time>
      </trkpt>
      <trkpt lat="34.256800" lon="-118.434950">
        <ele>292.499</ele>
        <time>2018-12-27T19:08:17Z</time>
      </trkpt>
      <trkpt lat="34.256810" lon="-118.434960">
        <ele>292.417</ele>
        <time>2018-12-27T19:08:37Z</time>
      </trkpt>
      <trkpt lat="34.256910" lon="-118.435050">
        <ele>292.752</ele>
        <time>2018-12-27T19:08:57Z</time>
      </trkpt>
      <trkpt lat="34.257690" lon="-118.435890">
        <ele>293.761</ele>
        <time>2018-12-27T19:09:17Z</time>
      </trkpt>
      <trkpt lat="34.258040" lon="-118.436250">
        <ele>293.575</ele>
        <time>2018-12-27T19:09:37Z</time>
      </trkpt>
      <trkpt lat="34.258240" lon="-118.436470">
        <ele>293.598</ele>
        <time>2018-12-27T19:09:57Z</time>
      </trkpt>
      <trkpt lat="34.259030" lon="-118.437310">
        <ele>293.492</ele>
        <time>2018-12-27T19:10:17Z</time>
      </trkpt>
      <trkpt lat="34.259730" lon="-118.438040">
        <ele>293.475</ele>
        <time>2018-12-27T19:10:37Z</time>
      </trkpt>
      <trkpt lat="34.260270" lon="-118.438620">
        <ele>293.468</ele>
        <time>2018-12-27T19:10:57Z</time>
      </trkpt>
      <trkpt lat="34.260410" lon="-118.438760">
        <ele>293.442</ele>
        <time>2018-12-27T19:11:17Z</time>
      </trkpt>
      <trkpt lat="34.260480" lon="-118.438900">
        <ele>293.426</ele>
        <time>2018-12-27T19:11:37Z</time>
      </trkpt>
      <trkpt lat="34.260520" lon="-118.438940">
        <ele>293.408</ele>
        <time>2018-12-27T19:11:57Z</time>
      </trkpt>
      <trkpt lat="34.260610" lon="-118.439040">
        <ele>293.449</ele>
        <time>2018-12-27T19:12:17Z</time>
      </trkpt>
      <trkpt lat="34.260790" lon="-118.439210">
        <ele>293.467</ele>
        <time>2018-12-27T19:12:37Z</time>
      </trkpt>
      <trkpt lat="34.260940" lon="-118.439360">
        <ele>293.432</ele>
        <time>2018-12-27T19:12:57Z</time>
      </trkpt>
      <trkpt lat="34.261090" lon="-118.439480">
        <ele>293.471</ele>
        <time>2018-12-27T19:13:17Z</time>
      </trkpt>
      <trkpt lat="34.261300" lon="-118.439660">
        <ele>293.455</ele>
        <time>2018-12-27T19:13:37Z</time>
      </trkpt>
      <trkpt lat="34.261420" lon="-118.439770">
        <ele>293.428</ele>
        <time>2018-12-27T19:13:57Z</time>
      </trkpt>
      <trkpt lat="34.261560" lon="-118.439880">
        <ele>293.512</ele>
        <time>2018-12-27T19:14:17Z</time>
      </trkpt>
      <trkpt lat="34.261850" lon="-118.440100">
        <ele>293.995</ele>
        <time>2018-12-27T19:14:37Z</time>
      </trkpt>
      <trkpt lat="34.262000" lon="-118.440200">
        <ele>294.126</ele>
        <time>2018-12-27T19:14:57Z</time>
      </trkpt>
      <trkpt lat="34.262390" lon="-118.440460">
        <ele>294.147</ele>
        <time>2018-12-27T19:15:17Z</time>
      </trkpt>
      <trkpt lat="34.263640" lon="-118.441260">
        <ele>299.511</ele>
        <time>2018-12-27T19:15:37Z</time>
      </trkpt>
      <trkpt lat="34.263980" lon="-118.441480">
        <ele>298.408</ele>
        <time>2018-12-27T19:15:57Z</time>
      </trkpt>
      <trkpt lat="34.264440" lon="-118.441770">
        <ele>297.395</ele>
        <time>2018-12-27T19:16:17Z</time>
      </trkpt>
      <trkpt lat="34.264560" lon="-118.441840">
        <ele>296.893</ele>
        <time>2018-12-27T19:16:37Z</time>
      </trkpt>
      <trkpt lat="34.264670" lon="-118.441920">
        <ele>295.738</ele>
        <time>2018-12-27T19:16:57Z</time>
      </trkpt>
      <trkpt lat="34.264790" lon="-118.441990">
        <ele>294.747</ele>
        <time>2018-12-27T19:17:17Z</time>
      </trkpt>
      <trkpt lat="34.265140" lon="-118.442210">
        <ele>297.871</ele>
        <time>2018-12-27T19:17:37Z</time>
      </trkpt>
      <trkpt lat="34.265280" lon="-118.442300">
        <ele>298.154</ele>
        <time>2018-12-27T19:17:57Z</time>
      </trkpt>
      <trkpt lat="34.265370" lon="-118.442360">
        <ele>298.128</ele>
        <time>2018-12-27T19:18:17Z</time>
      </trkpt>
      <trkpt lat="34.265520" lon="-118.442450">
        <ele>298.151</ele>
        <time>2018-12-27T19:18:37Z</time>
      </trkpt>
      <trkpt lat="34.265600" lon="-118.442510">
        <ele>298.247</ele>
        <time>2018-12-27T19:18:57Z</time>
      </trkpt>
      <trkpt lat="34.265630" lon="-118.442520">
        <ele>298.129</ele>
        <time>2018-12-27T19:19:17Z</time>
      </trkpt>
      <trkpt lat="34.265770" lon="-118.442600">
        <ele>298.021</ele>
        <time>2018-12-27T19:19:37Z</time>
      </trkpt>
      <trkpt lat="34.265880" lon="-118.442680">
        <ele>297.808</ele>
        <time>2018-12-27T19:19:57Z</time>
      </trkpt>
      <trkpt lat="34.265950" lon="-118.442730">
        <ele>297.767</ele>
        <time>2018-12-27T19:20:17Z</time>
      </trkpt>
      <trkpt lat="34.265960" lon="-118.442740">
        <ele>297.675</ele>
        <time>2018-12-27T19:20:37Z</time>
      </trkpt>
      <trkpt lat="34.266100" lon="-118.442840">
        <ele>297.650</ele>
        <time>2018-12-27T19:20:57Z</time>
      </trkpt>
      <trkpt lat="34.266120" lon="-118.442850">
        <ele>297.559</ele>
        <time>2018-12-27T19:21:17Z</time>
      </trkpt>
      <trkpt lat="34.266130" lon="-118.442860">
        <ele>297.513</ele>
        <time>2018-12-27T19:21:37Z</time>
      </trkpt>
      <trkpt lat="34.266170" lon="-118.442890">
        <ele>297.526</ele>
        <time>2018-12-27T19:21:57Z</time>
      </trkpt>
      <trkpt lat="34.266180" lon="-118.442900">
        <ele>297.520</ele>
        <time>2018-12-27T19:22:17Z</time>
      </trkpt>
      <trkpt lat="34.266410" lon="-118.443050">
        <ele>297.463</ele>
        <time>2018-12-27T19:22:37Z</time>
      </trkpt>
      <trkpt lat="34.266600" lon="-118.443190">
        <ele>297.464</ele>
        <time>2018-12-27T19:22:57Z</time>
      </trkpt>
      <trkpt lat="34.266970" lon="-118.443530">
        <ele>297.606</ele>
        <time>2018-12-27T19:23:17Z</time>
      </trkpt>
      <trkpt lat="34.267300" lon="-118.443850">
        <ele>298.016</ele>
        <time>2018-12-27T19:23:37Z</time>
      </trkpt>
      <trkpt lat="34.267390" lon="-118.443950">
        <ele>298.108</ele>
        <time>2018-12-27T19:23:57Z</time>
      </trkpt>
      <trkpt lat="34.267490" lon="-118.444060">
        <ele>298.389</ele>
        <time>2018-12-27T19:24:17Z</time>
      </trkpt>
      <trkpt lat="34.268320" lon="-118.444980">
        <ele>299.827</ele>
        <time>2018-12-27T19:24:37Z</time>
      </trkpt>
      <trkpt lat="34.268980" lon="-118.445680">
        <ele>301.062</ele>
        <time>2018-12-27T19:24:57Z</time>
      </trkpt>
      <trkpt lat="34.269350" lon="-118.446030">
        <ele>303.891</ele>
        <time>2018-12-27T19:25:17Z</time>
      </trkpt>
      <trkpt lat="34.269550" lon="-118.446260">
        <ele>309.155</ele>
        <time>2018-12-27T19:25:37Z</time>
      </trkpt>
      <trkpt lat="34.269750" lon="-118.446480">
        <ele>310.218</ele>
        <time>2018-12-27T19:25:57Z</time>
      </trkpt>
      <trkpt lat="34.269950" lon="-118.446700">
        <ele>308.742</ele>
        <time>2018-12-27T19:26:17Z</time>
      </trkpt>
      <trkpt lat="34.270100" lon="-118.446850">
        <ele>306.645</ele>
        <time>2018-12-27T19:26:37Z</time>
      </trkpt>
      <trkpt lat="34.270280" lon="-118.447040">
        <ele>306.045</ele>
        <time>2018-12-27T19:26:57Z</time>
      </trkpt>
      <trkpt lat="34.270420" lon="-118.447180">
        <ele>305.647</ele>
        <time>2018-12-27T19:27:17Z</time>
      </trkpt>
      <trkpt lat="34.270660" lon="-118.447420">
        <ele>305.511</ele>
        <time>2018-12-27T19:27:37Z</time>
      </trkpt>
      <trkpt lat="34.270890" lon="-118.447650">
        <ele>305.808</ele>
        <time>2018-12-27T19:27:57Z</time>
      </trkpt>
      <trkpt lat="34.270920" lon="-118.447670">
        <ele>305.937</ele>
        <time>2018-12-27T19:28:17Z</time>
      </trkpt>
      <trkpt lat="34.270990" lon="-118.447720">
        <ele>305.915</ele>
        <time>2018-12-27T19:28:37Z</time>
      </trkpt>
      <trkpt lat="34.271050" lon="-118.447770">
        <ele>306.070</ele>
        <time>2018-12-27T19:28:57Z</time>
      </trkpt>
      <trkpt lat="34.271190" lon="-118.447880">
        <ele>306.149</ele>
        <time>2018-12-27T19:29:17Z</time>
      </trkpt>
      <trkpt lat="34.271300" lon="-118.447970">
        <ele>306.243</ele>
        <time>2018-12-27T19:29:37Z</time>
      </trkpt>
      <trkpt lat="34.271440" lon="-118.448080">
        <ele>306.216</ele>
        <time>2018-12-27T19:29:57Z</time>
      </trkpt>
      <trkpt lat="34.271530" lon="-118.448150">
        <ele>306.330</ele>
        <time>2018-12-27T19:30:17Z</time>
      </trkpt>
      <trkpt lat="34.271780" lon="-118.448330">
        <ele>306.473</ele>
        <time>2018-12-27T19:30:37Z</time>
      </trkpt>
      <trkpt lat="34.272030" lon="-118.448500">
        <ele>306.759</ele>
        <time>2018-12-27T19:30:57Z</time>
      </trkpt>
      <trkpt lat="34.272520" lon="-118.448850">
        <ele>307.603</ele>
        <time>2018-12-27T19:31:17Z</time>
      </trkpt>
      <trkpt lat="34.272750" lon="-118.449010">
        <ele>308.123</ele>
        <time>2018-12-27T19:31:37Z</time>
      </trkpt>
      <trkpt lat="34.272870" lon="-118.449100">
        <ele>308.308</ele>
        <time>2018-12-27T19:31:57Z</time>
      </trkpt>
      <trkpt lat="34.273000" lon="-118.449190">
        <ele>308.688</ele>
        <time>2018-12-27T19:32:17Z</time>
      </trkpt>
      <trkpt lat="34.273130" lon="-118.449280">
        <ele>308.796</ele>
        <time>2018-12-27T19:32:37Z</time>
      </trkpt>
      <trkpt lat="34.273250" lon="-118.449370">
        <ele>308.991</ele>
        <time>2018-12-27T19:32:57Z</time>
      </trkpt>
      <trkpt lat="34.273380" lon="-118.449460">
        <ele>309.030</ele>
        <time>2018-12-27T19:33:17Z</time>
      </trkpt>
      <trkpt lat="34.273550" lon="-118.449580">
        <ele>309.184</ele>
        <time>2018-12-27T19:33:37Z</time>
      </trkpt>
      <trkpt lat="34.273580" lon="-118.449630">
        <ele>309.117</ele>
        <time>2018-12-27T19:33:57Z</time>
      </trkpt>
      <trkpt lat="34.273620" lon="-118.449660">
        <ele>309.221</ele>
        <time>2018-12-27T19:34:17Z</time>
      </trkpt>
      <trkpt lat="34.273700" lon="-118.449710">
        <ele>309.334</ele>
        <time>2018-12-27T19:34:37Z</time>
      </trkpt>
      <trkpt lat="34.273800" lon="-118.449790">
        <ele>309.337</ele>
        <time>2018-12-27T19:34:57Z</time>
      </trkpt>
      <trkpt lat="34.273920" lon="-118.449890">
        <ele>309.449</ele>
        <time>2018-12-27T19:35:17Z</time>
      </trkpt>
      <trkpt lat="34.274000" lon="-118.449950">
        <ele>309.513</ele>
        <time>2018-12-27T19:35:37Z</time>
      </trkpt>
      <trkpt lat="34.274160" lon="-118.450080">
        <ele>309.608</ele>
        <time>2018-12-27T19:35:57Z</time>
      </trkpt>
      <trkpt lat="34.274240" lon="-118.450160">
        <ele>309.646</ele>
        <time>2018-12-27T19:36:17Z</time>
      </trkpt>
      <trkpt lat="34.274330" lon="-118.450240">
        <ele>309.714</ele>
        <time>2018-12-27T19:36:37Z</time>
      </trkpt>
      <trkpt lat="34.274420" lon="-118.450320">
        <ele>309.769</ele>
        <time>2018-12-27T19:36:57Z</time>
      </trkpt>
      <trkpt lat="34.274510" lon="-118.450400">
        <ele>309.738</ele>
        <time>2018-12-27T19:37:17Z</time>
      </trkpt>
      <trkpt lat="34.274590" lon="-118.450490">
        <ele>309.722</ele>
        <time>2018-12-27T19:37:37Z</time>
      </trkpt>
      <trkpt lat="34.274820" lon="-118.450730">
        <ele>309.785</ele>
        <time>2018-12-27T19:37:57Z</time>
      </trkpt>
      <trkpt lat="34.274930" lon="-118.450840">
        <ele>309.769</ele>
        <time>2018-12-27T19:38:17Z</time>
      </trkpt>
      <trkpt lat="34.275000" lon="-118.450900">
        <ele>309.732</ele>
        <time>2018-12-27T19:38:37Z</time>
      </trkpt>
      <trkpt lat="34.275140" lon="-118.451050">
        <ele>309.746</ele>
        <time>2018-12-27T19:38:57Z</time>
      </trkpt>
      <trkpt lat="34.275240" lon="-118.451160">
        <ele>309.688</ele>
        <time>2018-12-27T19:39:17Z</time>
      </trkpt>
      <trkpt lat="34.275480" lon="-118.451420">
        <ele>309.416</ele>
        <time>2018-12-27T19:39:37Z</time>
      </trkpt>
      <trkpt lat="34.275820" lon="-118.451780">
        <ele>308.808</ele>
        <time>2018-12-27T19:39:57Z</time>
      </trkpt>
      <trkpt lat="34.276520" lon="-118.452520">
        <ele>308.877</ele>
        <time>2018-12-27T19:40:17Z</time>
      </trkpt>
      <trkpt lat="34.276770" lon="-118.452790">
        <ele>309.045</ele>
        <time>2018-12-27T19:40:37Z</time>
      </trkpt>
      <trkpt lat="34.276910" lon="-118.452940">
        <ele>309.260</ele>
        <time>2018-12-27T19:40:57Z</time>
      </trkpt>
      <trkpt lat="34.277020" lon="-118.453060">
        <ele>309.559</ele>
        <time>2018-12-27T19:41:17Z</time>
      </trkpt>
      <trkpt lat="34.277420" lon="-118.453490">
        <ele>309.963</ele>
        <time>2018-12-27T19:41:37Z</time>
      </trkpt>
      <trkpt lat="34.277620" lon="-118.453710">
        <ele>310.016</ele>
        <time>2018-12-27T19:41:57Z</time>
      </trkpt>
      <trkpt lat="34.277770" lon="-118.453860">
        <ele>310.250</ele>
        <time>2018-12-27T19:42:17Z</time>
      </trkpt>
      <trkpt lat="34.277960" lon="-118.454070">
        <ele>310.483</ele>
        <time>2018-12-27T19:42:37Z</time>
      </trkpt>
      <trkpt lat="34.278060" lon="-118.454180">
        <ele>310.587</ele>
        <time>2018-12-27T19:42:57Z</time>
      </trkpt>
      <trkpt lat="34.278090" lon="-118.454210">
        <ele>310.542</ele>
        <time>2018-12-27T19:43:17Z</time>
      </trkpt>
      <trkpt lat="34.278160" lon="-118.454280">
        <ele>310.626</ele>
        <time>2018-12-27T19:43:37Z</time>
      </trkpt>
      <trkpt lat="34.278260" lon="-118.454380">
        <ele>310.708</ele>
        <time>2018-12-27T19:43:57Z</time>
      </trkpt>
      <trkpt lat="34.278360" lon="-118.454480">
        <ele>310.861</ele>
        <time>2018-12-27T19:44:17Z</time>
      </trkpt>
      <trkpt lat="34.278470" lon="-118.454580">
        <ele>311.069</ele>
        <time>2018-12-27T19:44:37Z</time>
      </trkpt>
      <trkpt lat="34.278570" lon="-118.454670">
        <ele>311.114</ele>
        <time>2018-12-27T19:44:57Z</time>
      </trkpt>
      <trkpt lat="34.278730" lon="-118.454810">
        <ele>311.353</ele>
        <time>2018-12-27T19:45:17Z</time>
      </trkpt>
      <trkpt lat="34.278850" lon="-118.454910">
        <ele>311.937</ele>
        <time>2018-12-27T19:45:37Z</time>
      </trkpt>
      <trkpt lat="34.279030" lon="-118.455050">
        <ele>313.210</ele>
        <time>2018-12-27T19:45:57Z</time>
      </trkpt>
      <trkpt lat="34.279130" lon="-118.455120">
        <ele>314.064</ele>
        <time>2018-12-27T19:46:17Z</time>
      </trkpt>
      <trkpt lat="34.279220" lon="-118.455180">
        <ele>314.777</ele>
        <time>2018-12-27T19:46:37Z</time>
      </trkpt>
      <trkpt lat="34.279310" lon="-118.455240">
        <ele>315.568</ele>
        <time>2018-12-27T19:46:57Z</time>
      </trkpt>
      <trkpt lat="34.279420" lon="-118.455310">
        <ele>316.342</ele>
        <time>2018-12-27T19:47:17Z</time>
      </trkpt>
      <trkpt lat="34.279540" lon="-118.455390">
        <ele>317.126</ele>
        <time>2018-12-27T19:47:37Z</time>
      </trkpt>
      <trkpt lat="34.279610" lon="-118.455440">
        <ele>317.408</ele>
        <time>2018-12-27T19:47:57Z</time>
      </trkpt>
      <trkpt lat="34.279730" lon="-118.455510">
        <ele>317.649</ele>
        <time>2018-12-27T19:48:17Z</time>
      </trkpt>
      <trkpt lat="34.279770" lon="-118.455530">
        <ele>317.667</ele>
        <time>2018-12-27T19:48:37Z</time>
      </trkpt>
      <trkpt lat="34.281160" lon="-118.456380">
        <ele>317.642</ele>
        <time>2018-12-27T19:48:57Z</time>
      </trkpt>
      <trkpt lat="34.281260" lon="-118.456430">
        <ele>317.611</ele>
        <time>2018-12-27T19:49:17Z</time>
      </trkpt>
      <trkpt lat="34.281370" lon="-118.456500">
        <ele>317.695</ele>
        <time>2018-12-27T19:49:37Z</time>
      </trkpt>
      <trkpt lat="34.281550" lon="-118.456610">
        <ele>317.638</ele>
        <time>2018-12-27T19:49:57Z</time>
      </trkpt>
      <trkpt lat="34.281850" lon="-118.456790">
        <ele>317.732</ele>
        <time>2018-12-27T19:50:17Z</time>
      </trkpt>
      <trkpt lat="34.282270" lon="-118.457040">
        <ele>319.315</ele>
        <time>2018-12-27T19:50:37Z</time>
      </trkpt>
      <trkpt lat="34.282920" lon="-118.457430">
        <ele>324.521</ele>
        <time>2018-12-27T19:50:57Z</time>
      </trkpt>
      <trkpt lat="34.283160" lon="-118.457600">
        <ele>326.441</ele>
        <time>2018-12-27T19:51:17Z</time>
      </trkpt>
      <trkpt lat="34.283270" lon="-118.457680">
        <ele>326.405</ele>
        <time>2018-12-27T19:51:37Z</time>
      </trkpt>
      <trkpt lat="34.283340" lon="-118.457730">
        <ele>326.208</ele>
        <time>2018-12-27T19:51:57Z</time>
      </trkpt>
      <trkpt lat="34.283490" lon="-118.457850">
        <ele>325.755</ele>
        <time>2018-12-27T19:52:17Z</time>
      </trkpt>
      <trkpt lat="34.283620" lon="-118.457960">
        <ele>325.513</ele>
        <time>2018-12-27T19:52:37Z</time>
      </trkpt>
      <trkpt lat="34.283750" lon="-118.458080">
        <ele>325.438</ele>
        <time>2018-12-27T19:52:57Z</time>
      </trkpt>
      <trkpt lat="34.283870" lon="-118.458200">
        <ele>326.137</ele>
        <time>2018-12-27T19:53:17Z</time>
      </trkpt>
      <trkpt lat="34.284010" lon="-118.458330">
        <ele>326.761</ele>
        <time>2018-12-27T19:53:37Z</time>
      </trkpt>
      <trkpt lat="34.284060" lon="-118.458380">
        <ele>326.954</ele>
        <time>2018-12-27T19:53:57Z</time>
      </trkpt>
      <trkpt lat="34.284220" lon="-118.458540">
        <ele>327.528</ele>
        <time>2018-12-27T19:54:17Z</time>
      </trkpt>
      <trkpt lat="34.284350" lon="-118.458680">
        <ele>328.481</ele>
        <time>2018-12-27T19:54:37Z</time>
      </trkpt>
      <trkpt lat="34.284450" lon="-118.458800">
        <ele>329.471</ele>
        <time>2018-12-27T19:54:57Z</time>
      </trkpt>
      <trkpt lat="34.284610" lon="-118.458980">
        <ele>330.641</ele>
        <time>2018-12-27T19:55:17Z</time>
      </trkpt>
      <trkpt lat="34.284620" lon="-118.458980">
        <ele>330.715</ele>
        <time>2018-12-27T19:55:37Z</time>
      </trkpt>
      <trkpt lat="34.284720" lon="-118.459110">
        <ele>331.208</ele>
        <time>2018-12-27T19:55:57Z</time>
      </trkpt>
      <trkpt lat="34.284810" lon="-118.459220">
        <ele>331.860</ele>
        <time>2018-12-27T19:56:17Z</time>
      </trkpt>
      <trkpt lat="34.284950" lon="-118.459410">
        <ele>332.958</ele>
        <time>2018-12-27T19:56:37Z</time>
      </trkpt>
      <trkpt lat="34.285040" lon="-118.459530">
        <ele>333.283</ele>
        <time>2018-12-27T19:56:57Z</time>
      </trkpt>
      <trkpt lat="34.285140" lon="-118.459670">
        <ele>334.052</ele>
        <time>2018-12-27T19:57:17Z</time>
      </trkpt>
      <trkpt lat="34.285290" lon="-118.459880">
        <ele>335.916</ele>
        <time>2018-12-27T19:57:37Z</time>
      </trkpt>
      <trkpt lat="34.285350" lon="-118.459980">
        <ele>336.359</ele>
        <time>2018-12-27T19:57:57Z</time>
      </trkpt>
      <trkpt lat="34.285370" lon="-118.460020">
        <ele>336.423</ele>
        <time>2018-12-27T19:58:17Z</time>
      </trkpt>
      <trkpt lat="34.285490" lon="-118.460200">
        <ele>337.466</ele>
        <time>2018-12-27T19:58:37Z</time>
      </trkpt>
      <trkpt lat="34.285640" lon="-118.460450">
        <ele>338.864</ele>
        <time>2018-12-27T19:58:57Z</time>
      </trkpt>
      <trkpt lat="34.285870" lon="-118.460840">
        <ele>340.006</ele>
        <time>2018-12-27T19:59:17Z</time>
      </trkpt>
      <trkpt lat="34.286100" lon="-118.461220">
        <ele>340.516</ele>
        <time>2018-12-27T19:59:37Z</time>
      </trkpt>
      <trkpt lat="34.286400" lon="-118.461710">
        <ele>340.908</ele>
        <time>2018-12-27T19:59:57Z</time>
      </trkpt>
      <trkpt lat="34.286550" lon="-118.461960">
        <ele>340.849</ele>
        <time>2018-12-27T20:00:17Z</time>
      </trkpt>
      <trkpt lat="34.286640" lon="-118.462110">
        <ele>340.977</ele>
        <time>2018-12-27T20:00:37Z</time>
      </trkpt>
      <trkpt lat="34.286780" lon="-118.462340">
        <ele>341.412</ele>
        <time>2018-12-27T20:00:57Z</time>
      </trkpt>
      <trkpt lat="34.286930" lon="-118.462580">
        <ele>343.281</ele>
        <time>2018-12-27T20:01:17Z</time>
      </trkpt>
      <trkpt lat="34.287010" lon="-118.462730">
        <ele>343.845</ele>
        <time>2018-12-27T20:01:37Z</time>
      </trkpt>
      <trkpt lat="34.287420" lon="-118.463400">
        <ele>346.588</ele>
        <time>2018-12-27T20:01:57Z</time>
      </trkpt>
      <trkpt lat="34.287530" lon="-118.463580">
        <ele>348.082</ele>
        <time>2018-12-27T20:02:17Z</time>
      </trkpt>
      <trkpt lat="34.287650" lon="-118.463760">
        <ele>346.285</ele>
        <time>2018-12-27T20:02:37Z</time>
      </trkpt>
      <trkpt lat="34.287860" lon="-118.464070">
        <ele>347.511</ele>
        <time>2018-12-27T20:02:57Z</time>
      </trkpt>
      <trkpt lat="34.287990" lon="-118.464250">
        <ele>348.321</ele>
        <time>2018-12-27T20:03:17Z</time>
      </trkpt>
      <trkpt lat="34.288130" lon="-118.464430">
        <ele>348.703</ele>
        <time>2018-12-27T20:03:37Z</time>
      </trkpt>
      <trkpt lat="34.288260" lon="-118.464590">
        <ele>349.108</ele>
        <time>2018-12-27T20:03:57Z</time>
      </trkpt>
      <trkpt lat="34.288390" lon="-118.464750">
        <ele>349.894</ele>
        <time>2018-12-27T20:04:17Z</time>
      </trkpt>
      <trkpt lat="34.288500" lon="-118.464880">
        <ele>350.162</ele>
        <time>2018-12-27T20:04:37Z</time>
      </trkpt>
      <trkpt lat="34.288560" lon="-118.464940">
        <ele>351.037</ele>
        <time>2018-12-27T20:04:57Z</time>
      </trkpt>
      <trkpt lat="34.288620" lon="-118.465000">
        <ele>351.566</ele>
        <time>2018-12-27T20:05:17Z</time>
      </trkpt>
      <trkpt lat="34.288750" lon="-118.465140">
        <ele>351.090</ele>
        <time>2018-12-27T20:05:37Z</time>
      </trkpt>
      <trkpt lat="34.288850" lon="-118.465240">
        <ele>352.123</ele>
        <time>2018-12-27T20:05:57Z</time>
      </trkpt>
      <trkpt lat="34.288900" lon="-118.465290">
        <ele>352.347</ele>
        <time>2018-12-27T20:06:17Z</time>
      </trkpt>
      <trkpt lat="34.289060" lon="-118.465440">
        <ele>352.410</ele>
        <time>2018-12-27T20:06:37Z</time>
      </trkpt>
      <trkpt lat="34.289240" lon="-118.465630">
        <ele>353.756</ele>
        <time>2018-12-27T20:06:57Z</time>
      </trkpt>
      <trkpt lat="34.289900" lon="-118.466290">
        <ele>356.959</ele>
        <time>2018-12-27T20:07:17Z</time>
      </trkpt>
      <trkpt lat="34.290250" lon="-118.466630">
        <ele>357.614</ele>
        <time>2018-12-27T20:07:37Z</time>
      </trkpt>
      <trkpt lat="34.290750" lon="-118.467130">
        <ele>356.408</ele>
        <time>2018-12-27T20:07:57Z</time>
      </trkpt>
      <trkpt lat="34.291170" lon="-118.467540">
        <ele>356.878</ele>
        <time>2018-12-27T20:08:17Z</time>
      </trkpt>
      <trkpt lat="34.291440" lon="-118.467810">
        <ele>357.056</ele>
        <time>2018-12-27T20:08:37Z</time>
      </trkpt>
      <trkpt lat="34.291470" lon="-118.467840">
        <ele>356.711</ele>
        <time>2018-12-27T20:08:57Z</time>
      </trkpt>
      <trkpt lat="34.291480" lon="-118.467850">
        <ele>356.670</ele>
        <time>2018-12-27T20:09:17Z</time>
      </trkpt>
      <trkpt lat="34.291610" lon="-118.467980">
        <ele>357.114</ele>
        <time>2018-12-27T20:09:37Z</time>
      </trkpt>
      <trkpt lat="34.292050" lon="-118.468420">
        <ele>356.717</ele>
        <time>2018-12-27T20:09:57Z</time>
      </trkpt>
      <trkpt lat="34.292410" lon="-118.468780">
        <ele>356.461</ele>
        <time>2018-12-27T20:10:17Z</time>
      </trkpt>
      <trkpt lat="34.292770" lon="-118.469130">
        <ele>357.174</ele>
        <time>2018-12-27T20:10:37Z</time>
      </trkpt>
      <trkpt lat="34.293180" lon="-118.469550">
        <ele>355.836</ele>
        <time>2018-12-27T20:10:57Z</time>
      </trkpt>
      <trkpt lat="34.293560" lon="-118.469920">
        <ele>355.717</ele>
        <time>2018-12-27T20:11:17Z</time>
      </trkpt>
      <trkpt lat="34.293970" lon="-118.470330">
        <ele>355.518</ele>
        <time>2018-12-27T20:11:37Z</time>
      </trkpt>
      <trkpt lat="34.294460" lon="-118.470820">
        <ele>355.008</ele>
        <time>2018-12-27T20:11:57Z</time>
      </trkpt>
      <trkpt lat="34.294740" lon="-118.471090">
        <ele>355.176</ele>
        <time>2018-12-27T20:12:17Z</time>
      </trkpt>
      <trkpt lat="34.294960" lon="-118.471320">
        <ele>355.884</ele>
        <time>2018-12-27T20:12:37Z</time>
      </trkpt>
      <trkpt lat="34.295260" lon="-118.471620">
        <ele>357.449</ele>
        <time>2018-12-27T20:12:57Z</time>
      </trkpt>
      <trkpt lat="34.295460" lon="-118.471810">
        <ele>356.328</ele>
        <time>2018-12-27T20:13:17Z</time>
      </trkpt>
      <trkpt lat="34.295540" lon="-118.471890">
        <ele>357.712</ele>
        <time>2018-12-27T20:13:37Z</time>
      </trkpt>
      <trkpt lat="34.295800" lon="-118.472140">
        <ele>357.415</ele>
        <time>2018-12-27T20:13:57Z</time>
      </trkpt>
      <trkpt lat="34.296230" lon="-118.472580">
        <ele>356.399</ele>
        <time>2018-12-27T20:14:17Z</time>
      </trkpt>
      <trkpt lat="34.296370" lon="-118.472710">
        <ele>356.992</ele>
        <time>2018-12-27T20:14:37Z</time>
      </trkpt>
      <trkpt lat="34.296610" lon="-118.472940">
        <ele>355.453</ele>
        <time>2018-12-27T20:14:57Z</time>
      </trkpt>
      <trkpt lat="34.296740" lon="-118.473080">
        <ele>355.504</ele>
        <time>2018-12-27T20:15:17Z</time>
      </trkpt>
      <trkpt lat="34.296820" lon="-118.473120">
        <ele>355.314</ele>
        <time>2018-12-27T20:15:37Z</time>
      </trkpt>
      <trkpt lat="34.296900" lon="-118.473140">
        <ele>355.208</ele>
        <time>2018-12-27T20:15:57Z</time>
      </trkpt>
      <trkpt lat="34.297020" lon="-118.473270">
        <ele>355.378</ele>
        <time>2018-12-27T20:16:17Z</time>
      </trkpt>
      <trkpt lat="34.297780" lon="-118.474030">
        <ele>356.396</ele>
        <time>2018-12-27T20:16:37Z</time>
      </trkpt>
      <trkpt lat="34.298260" lon="-118.474500">
        <ele>356.311</ele>
        <time>2018-12-27T20:16:57Z</time>
      </trkpt>
      <trkpt lat="34.298960" lon="-118.475200">
        <ele>356.750</ele>
        <time>2018-12-27T20:17:17Z</time>
      </trkpt>
      <trkpt lat="34.299780" lon="-118.476020">
        <ele>356.664</ele>
        <time>2018-12-27T20:17:37Z</time>
      </trkpt>
      <trkpt lat="34.300550" lon="-118.476780">
        <ele>357.957</ele>
        <time>2018-12-27T20:17:57Z</time>
      </trkpt>
      <trkpt lat="34.300840" lon="-118.477090">
        <ele>359.391</ele>
        <time>2018-12-27T20:18:17Z</time>
      </trkpt>
      <trkpt lat="34.301060" lon="-118.477310">
        <ele>360.584</ele>
        <time>2018-12-27T20:18:37Z</time>
      </trkpt>
      <trkpt lat="34.301330" lon="-118.477590">
        <ele>360.843</ele>
        <time>2018-12-27T20:18:57Z</time>
      </trkpt>
      <trkpt lat="34.301960" lon="-118.478200">
        <ele>362.464</ele>
        <time>2018-12-27T20:19:17Z</time>
      </trkpt>
      <trkpt lat="34.302610" lon="-118.478830">
        <ele>364.010</ele>
        <time>2018-12-27T20:19:37Z</time>
      </trkpt>
      <trkpt lat="34.302680" lon="-118.478910">
        <ele>364.808</ele>
        <time>2018-12-27T20:19:57Z</time>
      </trkpt>
      <trkpt lat="34.302940" lon="-118.479160">
        <ele>367.077</ele>
        <time>2018-12-27T20:20:17Z</time>
      </trkpt>
      <trkpt lat="34.303060" lon="-118.479270">
        <ele>366.945</ele>
        <time>2018-12-27T20:20:37Z</time>
      </trkpt>
      <trkpt lat="34.303510" lon="-118.479710">
        <ele>366.260</ele>
        <time>2018-12-27T20:20:57Z</time>
      </trkpt>
      <trkpt lat="34.304200" lon="-118.480370">
        <ele>369.179</ele>
        <time>2018-12-27T20:21:17Z</time>
      </trkpt>
      <trkpt lat="34.304790" lon="-118.480930">
        <ele>372.543</ele>
        <time>2018-12-27T20:21:37Z</time>
      </trkpt>
      <trkpt lat="34.305000" lon="-118.481130">
        <ele>373.676</ele>
        <time>2018-12-27T20:21:57Z</time>
      </trkpt>
      <trkpt lat="34.305110" lon="-118.481240">
        <ele>374.290</ele>
        <time>2018-12-27T20:22:17Z</time>
      </trkpt>
      <trkpt lat="34.305230" lon="-118.481340">
        <ele>374.913</ele>
        <time>2018-12-27T20:22:37Z</time>
      </trkpt>
      <trkpt lat="34.305370" lon="-118.481460">
        <ele>375.729</ele>
        <time>2018-12-27T20:22:57Z</time>
      </trkpt>
      <trkpt lat="34.305830" lon="-118.481880">
        <ele>377.800</ele>
        <time>2018-12-27T20:23:17Z</time>
      </trkpt>
      <trkpt lat="34.306320" lon="-118.482350">
        <ele>378.220</ele>
        <time>2018-12-27T20:23:37Z</time>
      </trkpt>
      <trkpt lat="34.306630" lon="-118.482650">
        <ele>378.108</ele>
        <time>2018-12-27T20:23:57Z</time>
      </trkpt>
      <trkpt lat="34.307600" lon="-118.483580">
        <ele>378.565</ele>
        <time>2018-12-27T20:24:17Z</time>
      </trkpt>
      <trkpt lat="34.308090" lon="-118.484050">
        <ele>378.133</ele>
        <time>2018-12-27T20:24:37Z</time>
      </trkpt>
      <trkpt lat="34.308520" lon="-118.484460">
        <ele>378.478</ele>
        <time>2018-12-27T20:24:57Z</time>
      </trkpt>
      <trkpt lat="34.309080" lon="-118.484980">
        <ele>378.317</ele>
        <time>2018-12-27T20:25:17Z</time>
      </trkpt>
      <trkpt lat="34.309250" lon="-118.485130">
        <ele>377.561</ele>
        <time>2018-12-27T20:25:37Z</time>
      </trkpt>
      <trkpt lat="34.309460" lon="-118.485320">
        <ele>377.164</ele>
        <time>2018-12-27T20:25:57Z</time>
      </trkpt>
      <trkpt lat="34.309590" lon="-118.485430">
        <ele>376.998</ele>
        <time>2018-12-27T20:26:17Z</time>
      </trkpt>
      <trkpt lat="34.309720" lon="-118.485530">
        <ele>377.041</ele>
        <time>2018-12-27T20:26:37Z</time>
      </trkpt>
      <trkpt lat="34.309830" lon="-118.485620">
        <ele>377.175</ele>
        <time>2018-12-27T20:26:57Z</time>
      </trkpt>
      <trkpt lat="34.309940" lon="-118.485710">
        <ele>377.328</ele>
        <time>2018-12-27T20:27:17Z</time>
      </trkpt>
      <trkpt lat="34.310190" lon="-118.485900">
        <ele>378.220</ele>
        <time>2018-12-27T20:27:37Z</time>
      </trkpt>
      <trkpt lat="34.311480" lon="-118.486850">
        <ele>379.508</ele>
        <time>2018-12-27T20:27:57Z</time>
      </trkpt>
      <trkpt lat="34.311840" lon="-118.487120">
        <ele>380.050</ele>
        <time>2018-12-27T20:28:17Z</time>
      </trkpt>
      <trkpt lat="34.311910" lon="-118.487170">
        <ele>380.098</ele>
        <time>2018-12-27T20:28:37Z</time>
      </trkpt>
      <trkpt lat="34.312730" lon="-118.487770">
        <ele>381.273</ele>
        <time>2018-12-27T20:28:57Z</time>
      </trkpt>
      <trkpt lat="34.313280" lon="-118.488160">
        <ele>383.032</ele>
        <time>2018-12-27T20:29:17Z</time>
      </trkpt>
      <trkpt lat="34.314290" lon="-118.488900">
        <ele>387.286</ele>
        <time>2018-12-27T20:29:37Z</time>
      </trkpt>
      <trkpt lat="34.314810" lon="-118.489260">
        <ele>389.289</ele>
        <time>2018-12-27T20:29:57Z</time>
      </trkpt>
      <trkpt lat="34.314812" lon="-118.489262">
        <ele>389.323</ele>
        <time>2018-12-27T20:30:17Z</time>
      </trkpt>
      <trkpt lat="34.315330" lon="-118.489660">
        <ele>392.376</ele>
        <time>2018-12-27T20:30:37Z</time>
      </trkpt>
      <trkpt lat="34.315880" lon="-118.490060">
        <ele>397.593</ele>
        <time>2018-12-27T20:30:57Z</time>
      </trkpt>
      <trkpt lat="34.316300" lon="-118.490360">
        <ele>400.365</ele>
        <time>2018-12-27T20:31:17Z</time>
      </trkpt>
      <trkpt lat="34.316470" lon="-118.490490">
        <ele>400.621</ele>
        <time>2018-12-27T20:31:37Z</time>
      </trkpt>
      <trkpt lat="34.316770" lon="-118.490730">
        <ele>401.108</ele>
        <time>2018-12-27T20:31:57Z</time>
      </trkpt>
      <trkpt lat="34.316910" lon="-118.490840">
        <ele>400.712</ele>
        <time>2018-12-27T20:32:17Z</time>
      </trkpt>
      <trkpt lat="34.317180" lon="-118.491070">
        <ele>401.410</ele>
        <time>2018-12-27T20:32:37Z</time>
      </trkpt>
      <trkpt lat="34.317370" lon="-118.491230">
        <ele>402.475</ele>
        <time>2018-12-27T20:32:57Z</time>
      </trkpt>
      <trkpt lat="34.317610" lon="-118.491460">
        <ele>402.324</ele>
        <time>2018-12-27T20:33:17Z</time>
      </trkpt>
      <trkpt lat="34.317920" lon="-118.491750">
        <ele>400.618</ele>
        <time>2018-12-27T20:33:37Z</time>
      </trkpt>
      <trkpt lat="34.318160" lon="-118.492000">
        <ele>400.441</ele>
        <time>2018-12-27T20:33:57Z</time>
      </trkpt>
      <trkpt lat="34.318420" lon="-118.492280">
        <ele>399.755</ele>
        <time>2018-12-27T20:34:17Z</time>
      </trkpt>
      <trkpt lat="34.318710" lon="-118.492610">
        <ele>398.688</ele>
        <time>2018-12-27T20:34:37Z</time>
      </trkpt>
      <trkpt lat="34.319020" lon="-118.492980">
        <ele>397.846</ele>
        <time>2018-12-27T20:34:57Z</time>
      </trkpt>
      <trkpt lat="34.319280" lon="-118.493320">
        <ele>400.488</ele>
        <time>2018-12-27T20:35:17Z</time>
      </trkpt>
      <trkpt lat="34.319410" lon="-118.493480">
        <ele>400.916</ele>
        <time>2018-12-27T20:35:37Z</time>
      </trkpt>
      <trkpt lat="34.319560" lon="-118.493690">
        <ele>400.508</ele>
        <time>2018-12-27T20:35:57Z</time>
      </trkpt>
      <trkpt lat="34.319720" lon="-118.493910">
        <ele>399.167</ele>
        <time>2018-12-27T20:36:17Z</time>
      </trkpt>
      <trkpt lat="34.319780" lon="-118.494010">
        <ele>398.675</ele>
        <time>2018-12-27T20:36:37Z</time>
      </trkpt>
      <trkpt lat="34.319870" lon="-118.494150">
        <ele>398.560</ele>
        <time>2018-12-27T20:36:57Z</time>
      </trkpt>
      <trkpt lat="34.320100" lon="-118.494490">
        <ele>399.799</ele>
        <time>2018-12-27T20:37:17Z</time>
      </trkpt>
      <trkpt lat="34.320420" lon="-118.495010">
        <ele>398.673</ele>
        <time>2018-12-27T20:37:37Z</time>
      </trkpt>
      <trkpt lat="34.320820" lon="-118.495710">
        <ele>397.176</ele>
        <time>2018-12-27T20:37:57Z</time>
      </trkpt>
      <trkpt lat="34.320890" lon="-118.495840">
        <ele>397.110</ele>
        <time>2018-12-27T20:38:17Z</time>
      </trkpt>
      <trkpt lat="34.320910" lon="-118.495860">
        <ele>397.163</ele>
        <time>2018-12-27T20:38:37Z</time>
      </trkpt>
      <trkpt lat="34.320930" lon="-118.495880">
        <ele>397.194</ele>
        <time>2018-12-27T20:38:57Z</time>
      </trkpt>
      <trkpt lat="34.320970" lon="-118.495910">
        <ele>397.257</ele>
        <time>2018-12-27T20:39:17Z</time>
      </trkpt>
      <trkpt lat="34.321270" lon="-118.496420">
        <ele>397.522</ele>
        <time>2018-12-27T20:39:37Z</time>
      </trkpt>
      <trkpt lat="34.322080" lon="-118.497840">
        <ele>403.408</ele>
        <time>2018-12-27T20:39:57Z</time>
      </trkpt>
      <trkpt lat="34.322400" lon="-118.498400">
        <ele>404.672</ele>
        <time>2018-12-27T20:40:17Z</time>
      </trkpt>
      <trkpt lat="34.322660" lon="-118.498830">
        <ele>406.920</ele>
        <time>2018-12-27T20:40:37Z</time>
      </trkpt>
      <trkpt lat="34.322890" lon="-118.499240">
        <ele>408.945</ele>
        <time>2018-12-27T20:40:57Z</time>
      </trkpt>
      <trkpt lat="34.323290" lon="-118.499920">
        <ele>411.214</ele>
        <time>2018-12-27T20:41:17Z</time>
      </trkpt>
      <trkpt lat="34.323580" lon="-118.500430">
        <ele>414.778</ele>
        <time>2018-12-27T20:41:37Z</time>
      </trkpt>
      <trkpt lat="34.323780" lon="-118.500770">
        <ele>416.371</ele>
        <time>2018-12-27T20:41:57Z</time>
      </trkpt>
      <trkpt lat="34.323920" lon="-118.501000">
        <ele>416.595</ele>
        <time>2018-12-27T20:42:17Z</time>
      </trkpt>
      <trkpt lat="34.324040" lon="-118.501190">
        <ele>414.698</ele>
        <time>2018-12-27T20:42:37Z</time>
      </trkpt>
      <trkpt lat="34.324250" lon="-118.501540">
        <ele>417.698</ele>
        <time>2018-12-27T20:42:57Z</time>
      </trkpt>
      <trkpt lat="34.324340" lon="-118.501670">
        <ele>423.215</ele>
        <time>2018-12-27T20:43:17Z</time>
      </trkpt>
      <trkpt lat="34.324420" lon="-118.501780">
        <ele>430.526</ele>
        <time>2018-12-27T20:43:37Z</time>
      </trkpt>
      <trkpt lat="34.324490" lon="-118.501870">
        <ele>435.408</ele>
        <time>2018-12-27T20:43:57Z</time>
      </trkpt>
      <trkpt lat="34.324700" lon="-118.502150">
        <ele>433.082</ele>
        <time>2018-12-27T20:44:17Z</time>
      </trkpt>
      <trkpt lat="34.324850" lon="-118.502330">
        <ele>424.910</ele>
        <time>2018-12-27T20:44:37Z</time>
      </trkpt>
      <trkpt lat="34.324870" lon="-118.502360">
        <ele>424.015</ele>
        <time>2018-12-27T20:44:57Z</time>
      </trkpt>
      <trkpt lat="34.324990" lon="-118.502500">
        <ele>423.024</ele>
        <time>2018-12-27T20:45:17Z</time>
      </trkpt>
      <trkpt lat="34.325120" lon="-118.502640">
        <ele>420.758</ele>
        <time>2018-12-27T20:45:37Z</time>
      </trkpt>
      <trkpt lat="34.325300" lon="-118.502830">
        <ele>416.011</ele>
        <time>2018-12-27T20:45:57Z</time>
      </trkpt>
      <trkpt lat="34.325520" lon="-118.503050">
        <ele>414.575</ele>
        <time>2018-12-27T20:46:17Z</time>
      </trkpt>
      <trkpt lat="34.325590" lon="-118.503120">
        <ele>415.098</ele>
        <time>2018-12-27T20:46:37Z</time>
      </trkpt>
      <trkpt lat="34.325590" lon="-118.503117">
        <ele>415.037</ele>
        <time>2018-12-27T20:46:57Z</time>
      </trkpt>
      <trkpt lat="34.325680" lon="-118.503200">
        <ele>415.749</ele>
        <time>2018-12-27T20:47:17Z</time>
      </trkpt>
      <trkpt lat="34.325860" lon="-118.503370">
        <ele>419.113</ele>
        <time>2018-12-27T20:47:37Z</time>
      </trkpt>
      <trkpt lat="34.326010" lon="-118.503500">
        <ele>423.108</ele>
        <time>2018-12-27T20:47:57Z</time>
      </trkpt>
      <trkpt lat="34.326270" lon="-118.503710">
        <ele>432.286</ele>
        <time>2018-12-27T20:48:17Z</time>
      </trkpt>
      <trkpt lat="34.326370" lon="-118.503780">
        <ele>430.974</ele>
        <time>2018-12-27T20:48:37Z</time>
      </trkpt>
      <trkpt lat="34.326570" lon="-118.503930">
        <ele>427.279</ele>
        <time>2018-12-27T20:48:57Z</time>
      </trkpt>
      <trkpt lat="34.326680" lon="-118.504010">
        <ele>430.128</ele>
        <time>2018-12-27T20:49:17Z</time>
      </trkpt>
      <trkpt lat="34.326790" lon="-118.504080">
        <ele>432.812</ele>
        <time>2018-12-27T20:49:37Z</time>
      </trkpt>
      <trkpt lat="34.326900" lon="-118.504150">
        <ele>434.665</ele>
        <time>2018-12-27T20:49:57Z</time>
      </trkpt>
      <trkpt lat="34.327010" lon="-118.504220">
        <ele>438.539</ele>
        <time>2018-12-27T20:50:17Z</time>
      </trkpt>
      <trkpt lat="34.327220" lon="-118.504350">
        <ele>443.642</ele>
        <time>2018-12-27T20:50:37Z</time>
      </trkpt>
      <trkpt lat="34.327410" lon="-118.504450">
        <ele>442.165</ele>
        <time>2018-12-27T20:50:57Z</time>
      </trkpt>
      <trkpt lat="34.327600" lon="-118.504550">
        <ele>437.868</ele>
        <time>2018-12-27T20:51:17Z</time>
      </trkpt>
      <trkpt lat="34.327790" lon="-118.504640">
        <ele>430.714</ele>
        <time>2018-12-27T20:51:37Z</time>
      </trkpt>
      <trkpt lat="34.328000" lon="-118.504750">
        <ele>428.508</ele>
        <time>2018-12-27T20:51:57Z</time>
      </trkpt>
      <trkpt lat="34.328130" lon="-118.504810">
        <ele>432.559</ele>
        <time>2018-12-27T20:52:17Z</time>
      </trkpt>
      <trkpt lat="34.328430" lon="-118.504960">
        <ele>437.737</ele>
        <time>2018-12-27T20:52:37Z</time>
      </trkpt>
      <trkpt lat="34.328510" lon="-118.505000">
        <ele>436.922</ele>
        <time>2018-12-27T20:52:57Z</time>
      </trkpt>
      <trkpt lat="34.328910" lon="-118.505200">
        <ele>427.941</ele>
        <time>2018-12-27T20:53:17Z</time>
      </trkpt>
      <trkpt lat="34.329130" lon="-118.505300">
        <ele>428.795</ele>
        <time>2018-12-27T20:53:37Z</time>
      </trkpt>
      <trkpt lat="34.329370" lon="-118.505440">
        <ele>435.338</ele>
        <time>2018-12-27T20:53:57Z</time>
      </trkpt>
      <trkpt lat="34.329940" lon="-118.505720">
        <ele>450.722</ele>
        <time>2018-12-27T20:54:17Z</time>
      </trkpt>
      <trkpt lat="34.331140" lon="-118.506300">
        <ele>447.865</ele>
        <time>2018-12-27T20:54:37Z</time>
      </trkpt>
      <trkpt lat="34.331137" lon="-118.506300">
        <ele>447.912</ele>
        <time>2018-12-27T20:54:57Z</time>
      </trkpt>
      <trkpt lat="34.331150" lon="-118.506350">
        <ele>449.732</ele>
        <time>2018-12-27T20:55:17Z</time>
      </trkpt>
      <trkpt lat="34.331160" lon="-118.506370">
        <ele>450.305</ele>
        <time>2018-12-27T20:55:37Z</time>
      </trkpt>
      <trkpt lat="34.331160" lon="-118.506390">
        <ele>451.108</ele>
        <time>2018-12-27T20:55:57Z</time>
      </trkpt>
      <trkpt lat="34.331170" lon="-118.506410">
        <ele>451.854</ele>
        <time>2018-12-27T20:56:17Z</time>
      </trkpt>
      <trkpt lat="34.331190" lon="-118.506420">
        <ele>451.942</ele>
        <time>2018-12-27T20:56:37Z</time>
      </trkpt>
      <trkpt lat="34.331210" lon="-118.506430">
        <ele>452.187</ele>
        <time>2018-12-27T20:56:57Z</time>
      </trkpt>
      <trkpt lat="34.331320" lon="-118.506490">
        <ele>456.636</ele>
        <time>2018-12-27T20:57:17Z</time>
      </trkpt>
      <trkpt lat="34.331410" lon="-118.506530">
        <ele>461.590</ele>
        <time>2018-12-27T20:57:37Z</time>
      </trkpt>
      <trkpt lat="34.331540" lon="-118.506590">
        <ele>466.783</ele>
        <time>2018-12-27T20:57:57Z</time>
      </trkpt>
      <trkpt lat="34.331920" lon="-118.506780">
        <ele>449.347</ele>
        <time>2018-12-27T20:58:17Z</time>
      </trkpt>
      <trkpt lat="34.332110" lon="-118.506880">
        <ele>440.550</ele>
        <time>2018-12-27T20:58:37Z</time>
      </trkpt>
      <trkpt lat="34.332350" lon="-118.507020">
        <ele>450.325</ele>
        <time>2018-12-27T20:58:57Z</time>
      </trkpt>
      <trkpt lat="34.332500" lon="-118.507120">
        <ele>466.726</ele>
        <time>2018-12-27T20:59:17Z</time>
      </trkpt>
      <trkpt lat="34.332730" lon="-118.507280">
        <ele>490.208</ele>
        <time>2018-12-27T20:59:37Z</time>
      </trkpt>
      <trkpt lat="34.332940" lon="-118.507440">
        <ele>499.708</ele>
        <time>2018-12-27T20:59:57Z</time>
      </trkpt>
      <trkpt lat="34.333210" lon="-118.507650">
        <ele>480.345</ele>
        <time>2018-12-27T21:00:17Z</time>
      </trkpt>
      <trkpt lat="34.333460" lon="-118.507850">
        <ele>468.853</ele>
        <time>2018-12-27T21:00:37Z</time>
      </trkpt>
      <trkpt lat="34.333630" lon="-118.507980">
        <ele>469.338</ele>
        <time>2018-12-27T21:00:57Z</time>
      </trkpt>
      <trkpt lat="34.333780" lon="-118.508120">
        <ele>471.717</ele>
        <time>2018-12-27T21:01:17Z</time>
      </trkpt>
      <trkpt lat="34.333880" lon="-118.508210">
        <ele>469.251</ele>
        <time>2018-12-27T21:01:37Z</time>
      </trkpt>
      <trkpt lat="34.334140" lon="-118.508490">
        <ele>468.394</ele>
        <time>2018-12-27T21:01:57Z</time>
      </trkpt>
      <trkpt lat="34.334310" lon="-118.508660">
        <ele>483.528</ele>
        <time>2018-12-27T21:02:17Z</time>
      </trkpt>
      <trkpt lat="34.334600" lon="-118.509000">
        <ele>489.221</ele>
        <time>2018-12-27T21:02:37Z</time>
      </trkpt>
      <trkpt lat="34.334800" lon="-118.509260">
        <ele>490.822</ele>
        <time>2018-12-27T21:02:57Z</time>
      </trkpt>
      <trkpt lat="34.335160" lon="-118.509770">
        <ele>472.462</ele>
        <time>2018-12-27T21:03:17Z</time>
      </trkpt>
      <trkpt lat="34.335350" lon="-118.510050">
        <ele>474.508</ele>
        <time>2018-12-27T21:03:37Z</time>
      </trkpt>
      <trkpt lat="34.335700" lon="-118.510570">
        <ele>470.808</ele>
        <time>2018-12-27T21:03:57Z</time>
      </trkpt>
      <trkpt lat="34.336280" lon="-118.511450">
        <ele>471.865</ele>
        <time>2018-12-27T21:04:17Z</time>
      </trkpt>
      <trkpt lat="34.336520" lon="-118.511820">
        <ele>469.143</ele>
        <time>2018-12-27T21:04:37Z</time>
      </trkpt>
      <trkpt lat="34.336980" lon="-118.512560">
        <ele>473.658</ele>
        <time>2018-12-27T21:04:57Z</time>
      </trkpt>
      <trkpt lat="34.337060" lon="-118.512690">
        <ele>472.727</ele>
        <time>2018-12-27T21:05:17Z</time>
      </trkpt>
      <trkpt lat="34.337240" lon="-118.513000">
        <ele>473.371</ele>
        <time>2018-12-27T21:05:37Z</time>
      </trkpt>
      <trkpt lat="34.337400" lon="-118.513300">
        <ele>473.914</ele>
        <time>2018-12-27T21:05:57Z</time>
      </trkpt>
      <trkpt lat="34.338000" lon="-118.514550">
        <ele>489.668</ele>
        <time>2018-12-27T21:06:17Z</time>
      </trkpt>
      <trkpt lat="34.338110" lon="-118.514770">
        <ele>491.451</ele>
        <time>2018-12-27T21:06:37Z</time>
      </trkpt>
      <trkpt lat="34.338260" lon="-118.515110">
        <ele>498.369</ele>
        <time>2018-12-27T21:06:57Z</time>
      </trkpt>
      <trkpt lat="34.338410" lon="-118.515420">
        <ele>500.104</ele>
        <time>2018-12-27T21:07:17Z</time>
      </trkpt>
      <trkpt lat="34.338620" lon="-118.515860">
        <ele>500.324</ele>
        <time>2018-12-27T21:07:37Z</time>
      </trkpt>
      <trkpt lat="34.338780" lon="-118.516180">
        <ele>501.308</ele>
        <time>2018-12-27T21:07:57Z</time>
      </trkpt>
      <trkpt lat="34.338980" lon="-118.516580">
        <ele>497.999</ele>
        <time>2018-12-27T21:08:17Z</time>
      </trkpt>
      <trkpt lat="34.339190" lon="-118.517010">
        <ele>500.457</ele>
        <time>2018-12-27T21:08:37Z</time>
      </trkpt>
      <trkpt lat="34.339290" lon="-118.517220">
        <ele>499.132</ele>
        <time>2018-12-27T21:08:57Z</time>
      </trkpt>
      <trkpt lat="34.339620" lon="-118.517880">
        <ele>514.161</ele>
        <time>2018-12-27T21:09:17Z</time>
      </trkpt>
      <trkpt lat="34.339680" lon="-118.518010">
        <ele>516.945</ele>
        <time>2018-12-27T21:09:37Z</time>
      </trkpt>
      <trkpt lat="34.339930" lon="-118.518510">
        <ele>523.648</ele>
        <time>2018-12-27T21:09:57Z</time>
      </trkpt>
      <trkpt lat="34.340020" lon="-118.518700">
        <ele>525.092</ele>
        <time>2018-12-27T21:10:17Z</time>
      </trkpt>
      <trkpt lat="34.340100" lon="-118.518890">
        <ele>525.595</ele>
        <time>2018-12-27T21:10:37Z</time>
      </trkpt>
      <trkpt lat="34.340230" lon="-118.519170">
        <ele>527.644</ele>
        <time>2018-12-27T21:10:57Z</time>
      </trkpt>
      <trkpt lat="34.340420" lon="-118.519690">
        <ele>528.705</ele>
        <time>2018-12-27T21:11:17Z</time>
      </trkpt>
      <trkpt lat="34.340540" lon="-118.520030">
        <ele>538.615</ele>
        <time>2018-12-27T21:11:37Z</time>
      </trkpt>
      <trkpt lat="34.340650" lon="-118.520420">
        <ele>548.108</ele>
        <time>2018-12-27T21:11:57Z</time>
      </trkpt>
      <trkpt lat="34.340780" lon="-118.520920">
        <ele>570.227</ele>
        <time>2018-12-27T21:12:17Z</time>
      </trkpt>
      <trkpt lat="34.340840" lon="-118.521150">
        <ele>573.655</ele>
        <time>2018-12-27T21:12:37Z</time>
      </trkpt>
      <trkpt lat="34.341030" lon="-118.522160">
        <ele>586.120</ele>
        <time>2018-12-27T21:12:57Z</time>
      </trkpt>
      <trkpt lat="34.341120" lon="-118.522810">
        <ele>582.679</ele>
        <time>2018-12-27T21:13:17Z</time>
      </trkpt>
      <trkpt lat="34.341120" lon="-118.522820">
        <ele>582.643</ele>
        <time>2018-12-27T21:13:37Z</time>
      </trkpt>
      <trkpt lat="34.341180" lon="-118.523190">
        <ele>578.496</ele>
        <time>2018-12-27T21:13:57Z</time>
      </trkpt>
      <trkpt lat="34.341210" lon="-118.523420">
        <ele>570.740</ele>
        <time>2018-12-27T21:14:17Z</time>
      </trkpt>
      <trkpt lat="34.341250" lon="-118.523760">
        <ele>553.323</ele>
        <time>2018-12-27T21:14:37Z</time>
      </trkpt>
      <trkpt lat="34.341320" lon="-118.524260">
        <ele>549.092</ele>
        <time>2018-12-27T21:14:57Z</time>
      </trkpt>
      <trkpt lat="34.341440" lon="-118.525070">
        <ele>553.573</ele>
        <time>2018-12-27T21:15:17Z</time>
      </trkpt>
      <trkpt lat="34.341500" lon="-118.525380">
        <ele>543.620</ele>
        <time>2018-12-27T21:15:37Z</time>
      </trkpt>
      <trkpt lat="34.341640" lon="-118.525980">
        <ele>534.108</ele>
        <time>2018-12-27T21:15:57Z</time>
      </trkpt>
      <trkpt lat="34.341730" lon="-118.526330">
        <ele>540.672</ele>
        <time>2018-12-27T21:16:17Z</time>
      </trkpt>
      <trkpt lat="34.341860" lon="-118.526740">
        <ele>545.760</ele>
        <time>2018-12-27T21:16:37Z</time>
      </trkpt>
      <trkpt lat="34.342000" lon="-118.527130">
        <ele>545.315</ele>
        <time>2018-12-27T21:16:57Z</time>
      </trkpt>
      <trkpt lat="34.342190" lon="-118.527590">
        <ele>539.624</ele>
        <time>2018-12-27T21:17:17Z</time>
      </trkpt>
      <trkpt lat="34.342390" lon="-118.528050">
        <ele>529.948</ele>
        <time>2018-12-27T21:17:37Z</time>
      </trkpt>
      <trkpt lat="34.342540" lon="-118.528370">
        <ele>520.521</ele>
        <time>2018-12-27T21:17:57Z</time>
      </trkpt>
      <trkpt lat="34.342950" lon="-118.529100">
        <ele>513.085</ele>
        <time>2018-12-27T21:18:17Z</time>
      </trkpt>
      <trkpt lat="34.343190" lon="-118.529480">
        <ele>513.988</ele>
        <time>2018-12-27T21:18:37Z</time>
      </trkpt>
      <trkpt lat="34.343500" lon="-118.529870">
        <ele>508.588</ele>
        <time>2018-12-27T21:18:57Z</time>
      </trkpt>
      <trkpt lat="34.343800" lon="-118.530240">
        <ele>507.024</ele>
        <time>2018-12-27T21:19:17Z</time>
      </trkpt>
      <trkpt lat="34.344140" lon="-118.530630">
        <ele>504.826</ele>
        <time>2018-12-27T21:19:37Z</time>
      </trkpt>
      <trkpt lat="34.344560" lon="-118.531020">
        <ele>511.508</ele>
        <time>2018-12-27T21:19:57Z</time>
      </trkpt>
      <trkpt lat="34.345680" lon="-118.532020">
        <ele>533.121</ele>
        <time>2018-12-27T21:20:17Z</time>
      </trkpt>
      <trkpt lat="34.346230" lon="-118.532680">
        <ele>535.619</ele>
        <time>2018-12-27T21:20:37Z</time>
      </trkpt>
      <trkpt lat="34.346650" lon="-118.533270">
        <ele>539.064</ele>
        <time>2018-12-27T21:20:57Z</time>
      </trkpt>
      <trkpt lat="34.346970" lon="-118.533800">
        <ele>538.983</ele>
        <time>2018-12-27T21:21:17Z</time>
      </trkpt>
      <trkpt lat="34.347100" lon="-118.534030">
        <ele>533.867</ele>
        <time>2018-12-27T21:21:37Z</time>
      </trkpt>
      <trkpt lat="34.347250" lon="-118.534310">
        <ele>523.650</ele>
        <time>2018-12-27T21:21:57Z</time>
      </trkpt>
      <trkpt lat="34.347440" lon="-118.534710">
        <ele>511.944</ele>
        <time>2018-12-27T21:22:17Z</time>
      </trkpt>
      <trkpt lat="34.347560" lon="-118.534950">
        <ele>504.617</ele>
        <time>2018-12-27T21:22:37Z</time>
      </trkpt>
      <trkpt lat="34.347680" lon="-118.535240">
        <ele>489.635</ele>
        <time>2018-12-27T21:22:57Z</time>
      </trkpt>
      <trkpt lat="34.347870" lon="-118.535740">
        <ele>475.486</ele>
        <time>2018-12-27T21:23:17Z</time>
      </trkpt>
      <trkpt lat="34.348140" lon="-118.536430">
        <ele>499.314</ele>
        <time>2018-12-27T21:23:37Z</time>
      </trkpt>
      <trkpt lat="34.348350" lon="-118.536970">
        <ele>493.508</ele>
        <time>2018-12-27T21:23:57Z</time>
      </trkpt>
      <trkpt lat="34.349250" lon="-118.539310">
        <ele>480.246</ele>
        <time>2018-12-27T21:24:17Z</time>
      </trkpt>
      <trkpt lat="34.349810" lon="-118.540790">
        <ele>466.144</ele>
        <time>2018-12-27T21:24:37Z</time>
      </trkpt>
      <trkpt lat="34.350240" lon="-118.541970">
        <ele>447.679</ele>
        <time>2018-12-27T21:24:57Z</time>
      </trkpt>
      <trkpt lat="34.350330" lon="-118.542190">
        <ele>446.228</ele>
        <time>2018-12-27T21:25:17Z</time>
      </trkpt>
      <trkpt lat="34.350360" lon="-118.542270">
        <ele>445.922</ele>
        <time>2018-12-27T21:25:37Z</time>
      </trkpt>
      <trkpt lat="34.350610" lon="-118.542860">
        <ele>443.185</ele>
        <time>2018-12-27T21:25:57Z</time>
      </trkpt>
      <trkpt lat="34.350860" lon="-118.543520">
        <ele>442.649</ele>
        <time>2018-12-27T21:26:17Z</time>
      </trkpt>
      <trkpt lat="34.351080" lon="-118.544080">
        <ele>441.232</ele>
        <time>2018-12-27T21:26:37Z</time>
      </trkpt>
      <trkpt lat="34.351420" lon="-118.544960">
        <ele>444.945</ele>
        <time>2018-12-27T21:26:57Z</time>
      </trkpt>
      <trkpt lat="34.351680" lon="-118.545620">
        <ele>437.947</ele>
        <time>2018-12-27T21:27:17Z</time>
      </trkpt>
      <trkpt lat="34.351820" lon="-118.545950">
        <ele>434.411</ele>
        <time>2018-12-27T21:27:37Z</time>
      </trkpt>
      <trkpt lat="34.351980" lon="-118.546270">
        <ele>439.808</ele>
        <time>2018-12-27T21:27:57Z</time>
      </trkpt>
      <trkpt lat="34.352200" lon="-118.546660">
        <ele>448.897</ele>
        <time>2018-12-27T21:28:17Z</time>
      </trkpt>
      <trkpt lat="34.352380" lon="-118.546950">
        <ele>454.755</ele>
        <time>2018-12-27T21:28:37Z</time>
      </trkpt>
      <trkpt lat="34.352630" lon="-118.547350">
        <ele>457.540</ele>
        <time>2018-12-27T21:28:57Z</time>
      </trkpt>
      <trkpt lat="34.352790" lon="-118.547570">
        <ele>461.589</ele>
        <time>2018-12-27T21:29:17Z</time>
      </trkpt>
      <trkpt lat="34.353050" lon="-118.547920">
        <ele>454.133</ele>
        <time>2018-12-27T21:29:37Z</time>
      </trkpt>
      <trkpt lat="34.353330" lon="-118.548250">
        <ele>438.936</ele>
        <time>2018-12-27T21:29:57Z</time>
      </trkpt>
      <trkpt lat="34.353780" lon="-118.548740">
        <ele>436.890</ele>
        <time>2018-12-27T21:30:17Z</time>
      </trkpt>
      <trkpt lat="34.354740" lon="-118.549800">
        <ele>425.433</ele>
        <time>2018-12-27T21:30:37Z</time>
      </trkpt>
      <trkpt lat="34.355750" lon="-118.550910">
        <ele>432.431</ele>
        <time>2018-12-27T21:30:57Z</time>
      </trkpt>
      <trkpt lat="34.356780" lon="-118.552050">
        <ele>431.061</ele>
        <time>2018-12-27T21:31:17Z</time>
      </trkpt>
      <trkpt lat="34.357270" lon="-118.552540">
        <ele>431.607</ele>
        <time>2018-12-27T21:31:37Z</time>
      </trkpt>
      <trkpt lat="34.357770" lon="-118.552980">
        <ele>427.508</ele>
        <time>2018-12-27T21:31:57Z</time>
      </trkpt>
      <trkpt lat="34.358170" lon="-118.553280">
        <ele>426.836</ele>
        <time>2018-12-27T21:32:17Z</time>
      </trkpt>
      <trkpt lat="34.358400" lon="-118.553430">
        <ele>421.254</ele>
        <time>2018-12-27T21:32:37Z</time>
      </trkpt>
      <trkpt lat="34.358570" lon="-118.553540">
        <ele>420.589</ele>
        <time>2018-12-27T21:32:57Z</time>
      </trkpt>
      <trkpt lat="34.358850" lon="-118.553700">
        <ele>422.828</ele>
        <time>2018-12-27T21:33:17Z</time>
      </trkpt>
      <trkpt lat="34.359080" lon="-118.553830">
        <ele>427.982</ele>
        <time>2018-12-27T21:33:37Z</time>
      </trkpt>
      <trkpt lat="34.359280" lon="-118.553920">
        <ele>434.715</ele>
        <time>2018-12-27T21:33:57Z</time>
      </trkpt>
      <trkpt lat="34.359380" lon="-118.553970">
        <ele>434.499</ele>
        <time>2018-12-27T21:34:17Z</time>
      </trkpt>
      <trkpt lat="34.359520" lon="-118.554020">
        <ele>433.312</ele>
        <time>2018-12-27T21:34:37Z</time>
      </trkpt>
      <trkpt lat="34.359570" lon="-118.554040">
        <ele>433.043</ele>
        <time>2018-12-27T21:34:57Z</time>
      </trkpt>
      <trkpt lat="34.359940" lon="-118.554190">
        <ele>430.564</ele>
        <time>2018-12-27T21:35:17Z</time>
      </trkpt>
      <trkpt lat="34.360450" lon="-118.554360">
        <ele>418.010</ele>
        <time>2018-12-27T21:35:37Z</time>
      </trkpt>
      <trkpt lat="34.361150" lon="-118.554600">
        <ele>412.808</ele>
        <time>2018-12-27T21:35:57Z</time>
      </trkpt>
      <trkpt lat="34.362080" lon="-118.554910">
        <ele>415.647</ele>
        <time>2018-12-27T21:36:17Z</time>
      </trkpt>
      <trkpt lat="34.362450" lon="-118.555030">
        <ele>408.885</ele>
        <time>2018-12-27T21:36:37Z</time>
      </trkpt>
      <trkpt lat="34.363090" lon="-118.555240">
        <ele>404.760</ele>
        <time>2018-12-27T21:36:57Z</time>
      </trkpt>
      <trkpt lat="34.363770" lon="-118.555470">
        <ele>403.969</ele>
        <time>2018-12-27T21:37:17Z</time>
      </trkpt>
      <trkpt lat="34.364020" lon="-118.555570">
        <ele>403.523</ele>
        <time>2018-12-27T21:37:37Z</time>
      </trkpt>
      <trkpt lat="34.364170" lon="-118.555630">
        <ele>403.316</ele>
        <time>2018-12-27T21:37:57Z</time>
      </trkpt>
      <trkpt lat="34.364350" lon="-118.555710">
        <ele>403.060</ele>
        <time>2018-12-27T21:38:17Z</time>
      </trkpt>
      <trkpt lat="34.364530" lon="-118.555800">
        <ele>402.823</ele>
        <time>2018-12-27T21:38:37Z</time>
      </trkpt>
      <trkpt lat="34.364710" lon="-118.555890">
        <ele>402.872</ele>
        <time>2018-12-27T21:38:57Z</time>
      </trkpt>
      <trkpt lat="34.365150" lon="-118.556130">
        <ele>402.913</ele>
        <time>2018-12-27T21:39:17Z</time>
      </trkpt>
      <trkpt lat="34.365190" lon="-118.556160">
        <ele>402.914</ele>
        <time>2018-12-27T21:39:37Z</time>
      </trkpt>
      <trkpt lat="34.365420" lon="-118.556310">
        <ele>402.808</ele>
        <time>2018-12-27T21:39:57Z</time>
      </trkpt>
      <trkpt lat="34.365940" lon="-118.556690">
        <ele>402.860</ele>
        <time>2018-12-27T21:40:17Z</time>
      </trkpt>
      <trkpt lat="34.366240" lon="-118.556920">
        <ele>402.428</ele>
        <time>2018-12-27T21:40:37Z</time>
      </trkpt>
      <trkpt lat="34.367020" lon="-118.557530">
        <ele>402.463</ele>
        <time>2018-12-27T21:40:57Z</time>
      </trkpt>
      <trkpt lat="34.367830" lon="-118.558160">
        <ele>400.992</ele>
        <time>2018-12-27T21:41:17Z</time>
      </trkpt>
      <trkpt lat="34.369090" lon="-118.559140">
        <ele>400.226</ele>
        <time>2018-12-27T21:41:37Z</time>
      </trkpt>
      <trkpt lat="34.369580" lon="-118.559490">
        <ele>400.819</ele>
        <time>2018-12-27T21:41:57Z</time>
      </trkpt>
      <trkpt lat="34.370110" lon="-118.559850">
        <ele>399.733</ele>
        <time>2018-12-27T21:42:17Z</time>
      </trkpt>
      <trkpt lat="34.370700" lon="-118.560230">
        <ele>398.696</ele>
        <time>2018-12-27T21:42:37Z</time>
      </trkpt>
      <trkpt lat="34.371430" lon="-118.560690">
        <ele>398.232</ele>
        <time>2018-12-27T21:42:57Z</time>
      </trkpt>
      <trkpt lat="34.372160" lon="-118.561150">
        <ele>396.592</ele>
        <time>2018-12-27T21:43:17Z</time>
      </trkpt>
      <trkpt lat="34.372560" lon="-118.561410">
        <ele>395.011</ele>
        <time>2018-12-27T21:43:37Z</time>
      </trkpt>
      <trkpt lat="34.373000" lon="-118.561700">
        <ele>397.408</ele>
        <time>2018-12-27T21:43:57Z</time>
      </trkpt>
      <trkpt lat="34.374420" lon="-118.562610">
        <ele>397.526</ele>
        <time>2018-12-27T21:44:17Z</time>
      </trkpt>
      <trkpt lat="34.375430" lon="-118.563240">
        <ele>396.754</ele>
        <time>2018-12-27T21:44:37Z</time>
      </trkpt>
      <trkpt lat="34.378480" lon="-118.565190">
        <ele>409.839</ele>
        <time>2018-12-27T21:44:57Z</time>
      </trkpt>
      <trkpt lat="34.378600" lon="-118.565260">
        <ele>410.118</ele>
        <time>2018-12-27T21:45:17Z</time>
      </trkpt>
      <trkpt lat="34.378760" lon="-118.565360">
        <ele>409.932</ele>
        <time>2018-12-27T21:45:37Z</time>
      </trkpt>
      <trkpt lat="34.379390" lon="-118.565770">
        <ele>408.665</ele>
        <time>2018-12-27T21:45:57Z</time>
      </trkpt>
      <trkpt lat="34.379680" lon="-118.565950">
        <ele>408.989</ele>
        <time>2018-12-27T21:46:17Z</time>
      </trkpt>
      <trkpt lat="34.379900" lon="-118.566080">
        <ele>409.632</ele>
        <time>2018-12-27T21:46:37Z</time>
      </trkpt>
      <trkpt lat="34.380060" lon="-118.566170">
        <ele>409.697</ele>
        <time>2018-12-27T21:46:57Z</time>
      </trkpt>
      <trkpt lat="34.380280" lon="-118.566290">
        <ele>409.323</ele>
        <time>2018-12-27T21:47:17Z</time>
      </trkpt>
      <trkpt lat="34.380540" lon="-118.566420">
        <ele>408.525</ele>
        <time>2018-12-27T21:47:37Z</time>
      </trkpt>
      <trkpt lat="34.380720" lon="-118.566510">
        <ele>408.208</ele>
        <time>2018-12-27T21:47:57Z</time>
      </trkpt>
      <trkpt lat="34.380840" lon="-118.566570">
        <ele>408.212</ele>
        <time>2018-12-27T21:48:17Z</time>
      </trkpt>
      <trkpt lat="34.381080" lon="-118.566680">
        <ele>407.920</ele>
        <time>2018-12-27T21:48:37Z</time>
      </trkpt>
      <trkpt lat="34.381210" lon="-118.566740">
        <ele>407.575</ele>
        <time>2018-12-27T21:48:57Z</time>
      </trkpt>
      <trkpt lat="34.382030" lon="-118.567070">
        <ele>402.344</ele>
        <time>2018-12-27T21:49:17Z</time>
      </trkpt>
      <trkpt lat="34.382750" lon="-118.567370">
        <ele>399.428</ele>
        <time>2018-12-27T21:49:37Z</time>
      </trkpt>
      <trkpt lat="34.386490" lon="-118.568880">
        <ele>397.481</ele>
        <time>2018-12-27T21:49:57Z</time>
      </trkpt>
      <trkpt lat="34.387140" lon="-118.569150">
        <ele>398.715</ele>
        <time>2018-12-27T21:50:17Z</time>
      </trkpt>
      <trkpt lat="34.388040" lon="-118.569510">
        <ele>400.278</ele>
        <time>2018-12-27T21:50:37Z</time>
      </trkpt>
      <trkpt lat="34.388530" lon="-118.569680">
        <ele>405.742</ele>
        <time>2018-12-27T21:50:57Z</time>
      </trkpt>
      <trkpt lat="34.389160" lon="-118.569870">
        <ele>408.222</ele>
        <time>2018-12-27T21:51:17Z</time>
      </trkpt>
      <trkpt lat="34.389560" lon="-118.569980">
        <ele>411.214</ele>
        <time>2018-12-27T21:51:37Z</time>
      </trkpt>
      <trkpt lat="34.390090" lon="-118.570100">
        <ele>414.408</ele>
        <time>2018-12-27T21:51:57Z</time>
      </trkpt>
      <trkpt lat="34.390560" lon="-118.570220">
        <ele>415.637</ele>
        <time>2018-12-27T21:52:17Z</time>
      </trkpt>
      <trkpt lat="34.390900" lon="-118.570290">
        <ele>419.525</ele>
        <time>2018-12-27T21:52:37Z</time>
      </trkpt>
      <trkpt lat="34.391190" lon="-118.570370">
        <ele>422.050</ele>
        <time>2018-12-27T21:52:57Z</time>
      </trkpt>
      <trkpt lat="34.392400" lon="-118.570660">
        <ele>427.289</ele>
        <time>2018-12-27T21:53:17Z</time>
      </trkpt>
      <trkpt lat="34.394090" lon="-118.571060">
        <ele>427.293</ele>
        <time>2018-12-27T21:53:37Z</time>
      </trkpt>
      <trkpt lat="34.394190" lon="-118.571080">
        <ele>426.786</ele>
        <time>2018-12-27T21:53:57Z</time>
      </trkpt>
      <trkpt lat="34.394420" lon="-118.571140">
        <ele>426.310</ele>
        <time>2018-12-27T21:54:17Z</time>
      </trkpt>
      <trkpt lat="34.395360" lon="-118.571360">
        <ele>422.813</ele>
        <time>2018-12-27T21:54:37Z</time>
      </trkpt>
      <trkpt lat="34.397200" lon="-118.571800">
        <ele>410.352</ele>
        <time>2018-12-27T21:54:57Z</time>
      </trkpt>
      <trkpt lat="34.398280" lon="-118.572080">
        <ele>401.853</ele>
        <time>2018-12-27T21:55:17Z</time>
      </trkpt>
      <trkpt lat="34.399370" lon="-118.572330">
        <ele>396.508</ele>
        <time>2018-12-27T21:55:37Z</time>
      </trkpt>
      <trkpt lat="34.399640" lon="-118.572410">
        <ele>394.108</ele>
        <time>2018-12-27T21:55:57Z</time>
      </trkpt>
      <trkpt lat="34.399940" lon="-118.572490">
        <ele>393.248</ele>
        <time>2018-12-27T21:56:17Z</time>
      </trkpt>
      <trkpt lat="34.400230" lon="-118.572590">
        <ele>393.896</ele>
        <time>2018-12-27T21:56:37Z</time>
      </trkpt>
      <trkpt lat="34.400430" lon="-118.572660">
        <ele>394.241</ele>
        <time>2018-12-27T21:56:57Z</time>
      </trkpt>
      <trkpt lat="34.400710" lon="-118.572770">
        <ele>391.840</ele>
        <time>2018-12-27T21:57:17Z</time>
      </trkpt>
      <trkpt lat="34.400990" lon="-118.572890">
        <ele>389.574</ele>
        <time>2018-12-27T21:57:37Z</time>
      </trkpt>
      <trkpt lat="34.401600" lon="-118.573160">
        <ele>386.767</ele>
        <time>2018-12-27T21:57:57Z</time>
      </trkpt>
      <trkpt lat="34.403210" lon="-118.573880">
        <ele>378.291</ele>
        <time>2018-12-27T21:58:17Z</time>
      </trkpt>
      <trkpt lat="34.405300" lon="-118.574810">
        <ele>374.344</ele>
        <time>2018-12-27T21:58:37Z</time>
      </trkpt>
      <trkpt lat="34.408240" lon="-118.576130">
        <ele>370.119</ele>
        <time>2018-12-27T21:58:57Z</time>
      </trkpt>
      <trkpt lat="34.408350" lon="-118.576180">
        <ele>370.209</ele>
        <time>2018-12-27T21:59:17Z</time>
      </trkpt>
      <trkpt lat="34.408890" lon="-118.576420">
        <ele>368.819</ele>
        <time>2018-12-27T21:59:37Z</time>
      </trkpt>
      <trkpt lat="34.409470" lon="-118.576690">
        <ele>370.608</ele>
        <time>2018-12-27T21:59:57Z</time>
      </trkpt>
      <trkpt lat="34.410290" lon="-118.577050">
        <ele>372.244</ele>
        <time>2018-12-27T22:00:17Z</time>
      </trkpt>
      <trkpt lat="34.410640" lon="-118.577210">
        <ele>370.852</ele>
        <time>2018-12-27T22:00:37Z</time>
      </trkpt>
      <trkpt lat="34.411790" lon="-118.577720">
        <ele>366.257</ele>
        <time>2018-12-27T22:00:57Z</time>
      </trkpt>
      <trkpt lat="34.412590" lon="-118.578050">
        <ele>364.456</ele>
        <time>2018-12-27T22:01:17Z</time>
      </trkpt>
      <trkpt lat="34.413790" lon="-118.578500">
        <ele>360.620</ele>
        <time>2018-12-27T22:01:37Z</time>
      </trkpt>
      <trkpt lat="34.414490" lon="-118.578770">
        <ele>357.873</ele>
        <time>2018-12-27T22:01:57Z</time>
      </trkpt>
      <trkpt lat="34.415360" lon="-118.579130">
        <ele>354.187</ele>
        <time>2018-12-27T22:02:17Z</time>
      </trkpt>
      <trkpt lat="34.415990" lon="-118.579400">
        <ele>351.980</ele>
        <time>2018-12-27T22:02:37Z</time>
      </trkpt>
      <trkpt lat="34.416580" lon="-118.579690">
        <ele>350.271</ele>
        <time>2018-12-27T22:02:57Z</time>
      </trkpt>
      <trkpt lat="34.418840" lon="-118.580870">
        <ele>342.141</ele>
        <time>2018-12-27T22:03:17Z</time>
      </trkpt>
      <trkpt lat="34.419610" lon="-118.581270">
        <ele>338.915</ele>
        <time>2018-12-27T22:03:37Z</time>
      </trkpt>
      <trkpt lat="34.421250" lon="-118.582130">
        <ele>333.508</ele>
        <time>2018-12-27T22:03:57Z</time>
      </trkpt>
      <trkpt lat="34.422170" lon="-118.582610">
        <ele>331.460</ele>
        <time>2018-12-27T22:04:17Z</time>
      </trkpt>
      <trkpt lat="34.422650" lon="-118.582870">
        <ele>330.138</ele>
        <time>2018-12-27T22:04:37Z</time>
      </trkpt>
      <trkpt lat="34.423190" lon="-118.583170">
        <ele>329.823</ele>
        <time>2018-12-27T22:04:57Z</time>
      </trkpt>
      <trkpt lat="34.423420" lon="-118.583290">
        <ele>330.482</ele>
        <time>2018-12-27T22:05:17Z</time>
      </trkpt>
      <trkpt lat="34.423430" lon="-118.583290">
        <ele>330.596</ele>
        <time>2018-12-27T22:05:37Z</time>
      </trkpt>
      <trkpt lat="34.423750" lon="-118.583440">
        <ele>331.759</ele>
        <time>2018-12-27T22:05:57Z</time>
      </trkpt>
      <trkpt lat="34.424360" lon="-118.583760">
        <ele>329.533</ele>
        <time>2018-12-27T22:06:17Z</time>
      </trkpt>
      <trkpt lat="34.424790" lon="-118.583990">
        <ele>322.546</ele>
        <time>2018-12-27T22:06:37Z</time>
      </trkpt>
      <trkpt lat="34.425470" lon="-118.584380">
        <ele>320.735</ele>
        <time>2018-12-27T22:06:57Z</time>
      </trkpt>
      <trkpt lat="34.426240" lon="-118.584790">
        <ele>320.786</ele>
        <time>2018-12-27T22:07:17Z</time>
      </trkpt>
      <trkpt lat="34.426350" lon="-118.584840">
        <ele>320.914</ele>
        <time>2018-12-27T22:07:37Z</time>
      </trkpt>
      <trkpt lat="34.426850" lon="-118.585080">
        <ele>321.408</ele>
        <time>2018-12-27T22:07:57Z</time>
      </trkpt>
      <trkpt lat="34.427270" lon="-118.585290">
        <ele>322.786</ele>
        <time>2018-12-27T22:08:17Z</time>
      </trkpt>
      <trkpt lat="34.427940" lon="-118.585640">
        <ele>326.524</ele>
        <time>2018-12-27T22:08:37Z</time>
      </trkpt>
      <trkpt lat="34.428480" lon="-118.585930">
        <ele>327.879</ele>
        <time>2018-12-27T22:08:57Z</time>
      </trkpt>
      <trkpt lat="34.428490" lon="-118.585940">
        <ele>327.938</ele>
        <time>2018-12-27T22:09:17Z</time>
      </trkpt>
      <trkpt lat="34.428770" lon="-118.586080">
        <ele>329.832</ele>
        <time>2018-12-27T22:09:37Z</time>
      </trkpt>
      <trkpt lat="34.428860" lon="-118.586120">
        <ele>331.025</ele>
        <time>2018-12-27T22:09:57Z</time>
      </trkpt>
      <trkpt lat="34.429170" lon="-118.586300">
        <ele>333.199</ele>
        <time>2018-12-27T22:10:17Z</time>
      </trkpt>
      <trkpt lat="34.429520" lon="-118.586530">
        <ele>331.662</ele>
        <time>2018-12-27T22:10:37Z</time>
      </trkpt>
      <trkpt lat="34.429720" lon="-118.586670">
        <ele>329.116</ele>
        <time>2018-12-27T22:10:57Z</time>
      </trkpt>
      <trkpt lat="34.429940" lon="-118.586840">
        <ele>326.076</ele>
        <time>2018-12-27T22:11:17Z</time>
      </trkpt>
      <trkpt lat="34.430160" lon="-118.587010">
        <ele>323.613</ele>
        <time>2018-12-27T22:11:37Z</time>
      </trkpt>
      <trkpt lat="34.430660" lon="-118.587450">
        <ele>323.208</ele>
        <time>2018-12-27T22:11:57Z</time>
      </trkpt>
      <trkpt lat="34.430860" lon="-118.587660">
        <ele>322.734</ele>
        <time>2018-12-27T22:12:17Z</time>
      </trkpt>
      <trkpt lat="34.430980" lon="-118.587790">
        <ele>322.452</ele>
        <time>2018-12-27T22:12:37Z</time>
      </trkpt>
      <trkpt lat="34.431170" lon="-118.588010">
        <ele>322.297</ele>
        <time>2018-12-27T22:12:57Z</time>
      </trkpt>
      <trkpt lat="34.431250" lon="-118.588100">
        <ele>322.116</ele>
        <time>2018-12-27T22:13:17Z</time>
      </trkpt>
      <trkpt lat="34.431390" lon="-118.588260">
        <ele>322.140</ele>
        <time>2018-12-27T22:13:37Z</time>
      </trkpt>
      <trkpt lat="34.431750" lon="-118.588690">
        <ele>321.873</ele>
        <time>2018-12-27T22:13:57Z</time>
      </trkpt>
      <trkpt lat="34.432360" lon="-118.589390">
        <ele>321.467</ele>
        <time>2018-12-27T22:14:17Z</time>
      </trkpt>
      <trkpt lat="34.432860" lon="-118.589990">
        <ele>320.970</ele>
        <time>2018-12-27T22:14:37Z</time>
      </trkpt>
      <trkpt lat="34.433410" lon="-118.590630">
        <ele>320.364</ele>
        <time>2018-12-27T22:14:57Z</time>
      </trkpt>
      <trkpt lat="34.433650" lon="-118.590920">
        <ele>320.006</ele>
        <time>2018-12-27T22:15:17Z</time>
      </trkpt>
      <trkpt lat="34.434140" lon="-118.591490">
        <ele>319.416</ele>
        <time>2018-12-27T22:15:37Z</time>
      </trkpt>
      <trkpt lat="34.434870" lon="-118.592340">
        <ele>318.508</ele>
        <time>2018-12-27T22:15:57Z</time>
      </trkpt>
      <trkpt lat="34.435130" lon="-118.592650">
        <ele>318.299</ele>
        <time>2018-12-27T22:16:17Z</time>
      </trkpt>
      <trkpt lat="34.435540" lon="-118.593130">
        <ele>317.617</ele>
        <time>2018-12-27T22:16:37Z</time>
      </trkpt>
      <trkpt lat="34.435780" lon="-118.593420">
        <ele>317.092</ele>
        <time>2018-12-27T22:16:57Z</time>
      </trkpt>
      <trkpt lat="34.436180" lon="-118.593890">
        <ele>315.981</ele>
        <time>2018-12-27T22:17:17Z</time>
      </trkpt>
      <trkpt lat="34.436490" lon="-118.594260">
        <ele>314.435</ele>
        <time>2018-12-27T22:17:37Z</time>
      </trkpt>
      <trkpt lat="34.436890" lon="-118.594730">
        <ele>315.238</ele>
        <time>2018-12-27T22:17:57Z</time>
      </trkpt>
      <trkpt lat="34.437220" lon="-118.595110">
        <ele>315.462</ele>
        <time>2018-12-27T22:18:17Z</time>
      </trkpt>
      <trkpt lat="34.437510" lon="-118.595450">
        <ele>315.395</ele>
        <time>2018-12-27T22:18:37Z</time>
      </trkpt>
      <trkpt lat="34.437520" lon="-118.595460">
        <ele>315.391</ele>
        <time>2018-12-27T22:18:57Z</time>
      </trkpt>
      <trkpt lat="34.437790" lon="-118.595800">
        <ele>315.481</ele>
        <time>2018-12-27T22:19:17Z</time>
      </trkpt>
      <trkpt lat="34.438070" lon="-118.596120">
        <ele>315.319</ele>
        <time>2018-12-27T22:19:37Z</time>
      </trkpt>
      <trkpt lat="34.438480" lon="-118.596640">
        <ele>315.008</ele>
        <time>2018-12-27T22:19:57Z</time>
      </trkpt>
      <trkpt lat="34.438750" lon="-118.596980">
        <ele>314.952</ele>
        <time>2018-12-27T22:20:17Z</time>
      </trkpt>
      <trkpt lat="34.439020" lon="-118.597390">
        <ele>314.680</ele>
        <time>2018-12-27T22:20:37Z</time>
      </trkpt>
      <trkpt lat="34.439290" lon="-118.597790">
        <ele>314.225</ele>
        <time>2018-12-27T22:20:57Z</time>
      </trkpt>
      <trkpt lat="34.439440" lon="-118.598030">
        <ele>314.014</ele>
        <time>2018-12-27T22:21:17Z</time>
      </trkpt>
      <trkpt lat="34.439690" lon="-118.598460">
        <ele>313.628</ele>
        <time>2018-12-27T22:21:37Z</time>
      </trkpt>
      <trkpt lat="34.440060" lon="-118.599130">
        <ele>313.221</ele>
        <time>2018-12-27T22:21:57Z</time>
      </trkpt>
      <trkpt lat="34.440260" lon="-118.599530">
        <ele>312.965</ele>
        <time>2018-12-27T22:22:17Z</time>
      </trkpt>
      <trkpt lat="34.440350" lon="-118.599680">
        <ele>312.938</ele>
        <time>2018-12-27T22:22:37Z</time>
      </trkpt>
      <trkpt lat="34.440650" lon="-118.600260">
        <ele>312.772</ele>
        <time>2018-12-27T22:22:57Z</time>
      </trkpt>
      <trkpt lat="34.440710" lon="-118.600400">
        <ele>312.613</ele>
        <time>2018-12-27T22:23:17Z</time>
      </trkpt>
      <trkpt lat="34.442020" lon="-118.602900">
        <ele>311.614</ele>
        <time>2018-12-27T22:23:37Z</time>
      </trkpt>
      <trkpt lat="34.442210" lon="-118.603270">
        <ele>311.508</ele>
        <time>2018-12-27T22:23:57Z</time>
      </trkpt>
      <trkpt lat="34.442490" lon="-118.603810">
        <ele>311.540</ele>
        <time>2018-12-27T22:24:17Z</time>
      </trkpt>
      <trkpt lat="34.442810" lon="-118.604430">
        <ele>311.758</ele>
        <time>2018-12-27T22:24:37Z</time>
      </trkpt>
      <trkpt lat="34.443020" lon="-118.604830">
        <ele>312.183</ele>
        <time>2018-12-27T22:24:57Z</time>
      </trkpt>
      <trkpt lat="34.443140" lon="-118.605060">
        <ele>312.882</ele>
        <time>2018-12-27T22:25:17Z</time>
      </trkpt>
      <trkpt lat="34.443240" lon="-118.605260">
        <ele>314.316</ele>
        <time>2018-12-27T22:25:37Z</time>
      </trkpt>
      <trkpt lat="34.443500" lon="-118.605750">
        <ele>315.039</ele>
        <time>2018-12-27T22:25:57Z</time>
      </trkpt>
      <trkpt lat="34.443650" lon="-118.606050">
        <ele>315.043</ele>
        <time>2018-12-27T22:26:17Z</time>
      </trkpt>
      <trkpt lat="34.443800" lon="-118.606350">
        <ele>316.036</ele>
        <time>2018-12-27T22:26:37Z</time>
      </trkpt>
      <trkpt lat="34.444370" lon="-118.607440">
        <ele>312.361</ele>
        <time>2018-12-27T22:26:57Z</time>
      </trkpt>
      <trkpt lat="34.444730" lon="-118.608140">
        <ele>312.221</ele>
        <time>2018-12-27T22:27:17Z</time>
      </trkpt>
      <trkpt lat="34.444770" lon="-118.608220">
        <ele>312.213</ele>
        <time>2018-12-27T22:27:37Z</time>
      </trkpt>
      <trkpt lat="34.445070" lon="-118.608770">
        <ele>312.108</ele>
        <time>2018-12-27T22:27:57Z</time>
      </trkpt>
      <trkpt lat="34.445340" lon="-118.609200">
        <ele>312.059</ele>
        <time>2018-12-27T22:28:17Z</time>
      </trkpt>
      <trkpt lat="34.445710" lon="-118.609730">
        <ele>310.977</ele>
        <time>2018-12-27T22:28:37Z</time>
      </trkpt>
      <trkpt lat="34.445950" lon="-118.610010">
        <ele>310.692</ele>
        <time>2018-12-27T22:28:57Z</time>
      </trkpt>
      <trkpt lat="34.446170" lon="-118.610280">
        <ele>310.411</ele>
        <time>2018-12-27T22:29:17Z</time>
      </trkpt>
      <trkpt lat="34.446210" lon="-118.610320">
        <ele>310.355</ele>
        <time>2018-12-27T22:29:37Z</time>
      </trkpt>
      <trkpt lat="34.446510" lon="-118.610640">
        <ele>311.568</ele>
        <time>2018-12-27T22:29:57Z</time>
      </trkpt>
      <trkpt lat="34.446640" lon="-118.610770">
        <ele>311.892</ele>
        <time>2018-12-27T22:30:17Z</time>
      </trkpt>
      <trkpt lat="34.446990" lon="-118.611090">
        <ele>312.135</ele>
        <time>2018-12-27T22:30:37Z</time>
      </trkpt>
      <trkpt lat="34.447290" lon="-118.611350">
        <ele>312.265</ele>
        <time>2018-12-27T22:30:57Z</time>
      </trkpt>
      <trkpt lat="34.447580" lon="-118.611570">
        <ele>312.668</ele>
        <time>2018-12-27T22:31:17Z</time>
      </trkpt>
      <trkpt lat="34.448180" lon="-118.612030">
        <ele>313.814</ele>
        <time>2018-12-27T22:31:37Z</time>
      </trkpt>
      <trkpt lat="34.448460" lon="-118.612240">
        <ele>315.008</ele>
        <time>2018-12-27T22:31:57Z</time>
      </trkpt>
      <trkpt lat="34.448920" lon="-118.612600">
        <ele>316.349</ele>
        <time>2018-12-27T22:32:17Z</time>
      </trkpt>
      <trkpt lat="34.449410" lon="-118.612980">
        <ele>319.037</ele>
        <time>2018-12-27T22:32:37Z</time>
      </trkpt>
      <trkpt lat="34.449740" lon="-118.613230">
        <ele>316.522</ele>
        <time>2018-12-27T22:32:57Z</time>
      </trkpt>
      <trkpt lat="34.449860" lon="-118.613330">
        <ele>315.661</ele>
        <time>2018-12-27T22:33:17Z</time>
      </trkpt>
      <trkpt lat="34.450280" lon="-118.613650">
        <ele>315.065</ele>
        <time>2018-12-27T22:33:37Z</time>
      </trkpt>
      <trkpt lat="34.450760" lon="-118.614030">
        <ele>315.078</ele>
        <time>2018-12-27T22:33:57Z</time>
      </trkpt>
      <trkpt lat="34.451120" lon="-118.614290">
        <ele>314.482</ele>
        <time>2018-12-27T22:34:17Z</time>
      </trkpt>
      <trkpt lat="34.451280" lon="-118.614390">
        <ele>314.245</ele>
        <time>2018-12-27T22:34:37Z</time>
      </trkpt>
      <trkpt lat="34.451380" lon="-118.614450">
        <ele>314.045</ele>
        <time>2018-12-27T22:34:57Z</time>
      </trkpt>
      <trkpt lat="34.451600" lon="-118.614590">
        <ele>313.947</ele>
        <time>2018-12-27T22:35:17Z</time>
      </trkpt>
      <trkpt lat="34.451900" lon="-118.614780">
        <ele>314.611</ele>
        <time>2018-12-27T22:35:37Z</time>
      </trkpt>
      <trkpt lat="34.452040" lon="-118.614860">
        <ele>314.708</ele>
        <time>2018-12-27T22:35:57Z</time>
      </trkpt>
      <trkpt lat="34.452270" lon="-118.614990">
        <ele>314.957</ele>
        <time>2018-12-27T22:36:17Z</time>
      </trkpt>
      <trkpt lat="34.452810" lon="-118.615230">
        <ele>315.845</ele>
        <time>2018-12-27T22:36:37Z</time>
      </trkpt>
      <trkpt lat="34.453380" lon="-118.615440">
        <ele>316.140</ele>
        <time>2018-12-27T22:36:57Z</time>
      </trkpt>
      <trkpt lat="34.453670" lon="-118.615540">
        <ele>316.399</ele>
        <time>2018-12-27T22:37:17Z</time>
      </trkpt>
      <trkpt lat="34.454130" lon="-118.615670">
        <ele>317.193</ele>
        <time>2018-12-27T22:37:37Z</time>
      </trkpt>
      <trkpt lat="34.454560" lon="-118.615760">
        <ele>317.756</ele>
        <time>2018-12-27T22:37:57Z</time>
      </trkpt>
      <trkpt lat="34.454900" lon="-118.615820">
        <ele>317.860</ele>
        <time>2018-12-27T22:38:17Z</time>
      </trkpt>
      <trkpt lat="34.455350" lon="-118.615860">
        <ele>317.973</ele>
        <time>2018-12-27T22:38:37Z</time>
      </trkpt>
      <trkpt lat="34.455840" lon="-118.615880">
        <ele>318.985</ele>
        <time>2018-12-27T22:38:57Z</time>
      </trkpt>
      <trkpt lat="34.456020" lon="-118.615880">
        <ele>319.389</ele>
        <time>2018-12-27T22:39:17Z</time>
      </trkpt>
      <trkpt lat="34.456340" lon="-118.615870">
        <ele>319.417</ele>
        <time>2018-12-27T22:39:37Z</time>
      </trkpt>
      <trkpt lat="34.456560" lon="-118.615860">
        <ele>319.408</ele>
        <time>2018-12-27T22:39:57Z</time>
      </trkpt>
      <trkpt lat="34.456820" lon="-118.615830">
        <ele>319.541</ele>
        <time>2018-12-27T22:40:17Z</time>
      </trkpt>
      <trkpt lat="34.456980" lon="-118.615810">
        <ele>319.649</ele>
        <time>2018-12-27T22:40:37Z</time>
      </trkpt>
      <trkpt lat="34.457330" lon="-118.615760">
        <ele>320.364</ele>
        <time>2018-12-27T22:40:57Z</time>
      </trkpt>
      <trkpt lat="34.457490" lon="-118.615730">
        <ele>320.683</ele>
        <time>2018-12-27T22:41:17Z</time>
      </trkpt>
      <trkpt lat="34.457790" lon="-118.615670">
        <ele>320.957</ele>
        <time>2018-12-27T22:41:37Z</time>
      </trkpt>
      <trkpt lat="34.458230" lon="-118.615590">
        <ele>320.980</ele>
        <time>2018-12-27T22:41:57Z</time>
      </trkpt>
      <trkpt lat="34.459320" lon="-118.615380">
        <ele>321.714</ele>
        <time>2018-12-27T22:42:17Z</time>
      </trkpt>
      <trkpt lat="34.459650" lon="-118.615310">
        <ele>322.157</ele>
        <time>2018-12-27T22:42:37Z</time>
      </trkpt>
      <trkpt lat="34.460100" lon="-118.615230">
        <ele>322.637</ele>
        <time>2018-12-27T22:42:57Z</time>
      </trkpt>
      <trkpt lat="34.460230" lon="-118.615210">
        <ele>322.949</ele>
        <time>2018-12-27T22:43:17Z</time>
      </trkpt>
      <trkpt lat="34.460470" lon="-118.615160">
        <ele>323.413</ele>
        <time>2018-12-27T22:43:37Z</time>
      </trkpt>
      <trkpt lat="34.460770" lon="-118.615130">
        <ele>323.608</ele>
        <time>2018-12-27T22:43:57Z</time>
      </trkpt>
      <trkpt lat="34.461010" lon="-118.615100">
        <ele>323.786</ele>
        <time>2018-12-27T22:44:17Z</time>
      </trkpt>
      <trkpt lat="34.461400" lon="-118.615090">
        <ele>324.084</ele>
        <time>2018-12-27T22:44:37Z</time>
      </trkpt>
      <trkpt lat="34.461820" lon="-118.615090">
        <ele>324.419</ele>
        <time>2018-12-27T22:44:57Z</time>
      </trkpt>
      <trkpt lat="34.462110" lon="-118.615110">
        <ele>324.178</ele>
        <time>2018-12-27T22:45:17Z</time>
      </trkpt>
      <trkpt lat="34.462480" lon="-118.615160">
        <ele>324.262</ele>
        <time>2018-12-27T22:45:37Z</time>
      </trkpt>
      <trkpt lat="34.462700" lon="-118.615190">
        <ele>324.585</ele>
        <time>2018-12-27T22:45:57Z</time>
      </trkpt>
      <trkpt lat="34.462960" lon="-118.615240">
        <ele>324.859</ele>
        <time>2018-12-27T22:46:17Z</time>
      </trkpt>
      <trkpt lat="34.463220" lon="-118.615300">
        <ele>325.022</ele>
        <time>2018-12-27T22:46:37Z</time>
      </trkpt>
      <trkpt lat="34.463530" lon="-118.615390">
        <ele>325.413</ele>
        <time>2018-12-27T22:46:57Z</time>
      </trkpt>
      <trkpt lat="34.463820" lon="-118.615480">
        <ele>325.643</ele>
        <time>2018-12-27T22:47:17Z</time>
      </trkpt>
      <trkpt lat="34.464130" lon="-118.615600">
        <ele>325.707</ele>
        <time>2018-12-27T22:47:37Z</time>
      </trkpt>
      <trkpt lat="34.464550" lon="-118.615770">
        <ele>326.108</ele>
        <time>2018-12-27T22:47:57Z</time>
      </trkpt>
      <trkpt lat="34.464970" lon="-118.615940">
        <ele>326.674</ele>
        <time>2018-12-27T22:48:17Z</time>
      </trkpt>
      <trkpt lat="34.465290" lon="-118.616070">
        <ele>326.992</ele>
        <time>2018-12-27T22:48:37Z</time>
      </trkpt>
      <trkpt lat="34.465600" lon="-118.616180">
        <ele>327.037</ele>
        <time>2018-12-27T22:48:57Z</time>
      </trkpt>
      <trkpt lat="34.465910" lon="-118.616280">
        <ele>327.196</ele>
        <time>2018-12-27T22:49:17Z</time>
      </trkpt>
      <trkpt lat="34.466210" lon="-118.616350">
        <ele>327.060</ele>
        <time>2018-12-27T22:49:37Z</time>
      </trkpt>
      <trkpt lat="34.466550" lon="-118.616430">
        <ele>327.413</ele>
        <time>2018-12-27T22:49:57Z</time>
      </trkpt>
      <trkpt lat="34.466900" lon="-118.616490">
        <ele>328.597</ele>
        <time>2018-12-27T22:50:17Z</time>
      </trkpt>
      <trkpt lat="34.467460" lon="-118.616540">
        <ele>328.880</ele>
        <time>2018-12-27T22:50:37Z</time>
      </trkpt>
      <trkpt lat="34.467700" lon="-118.616540">
        <ele>328.712</ele>
        <time>2018-12-27T22:50:57Z</time>
      </trkpt>
      <trkpt lat="34.467910" lon="-118.616540">
        <ele>328.732</ele>
        <time>2018-12-27T22:51:17Z</time>
      </trkpt>
      <trkpt lat="34.468040" lon="-118.616530">
        <ele>328.705</ele>
        <time>2018-12-27T22:51:37Z</time>
      </trkpt>
      <trkpt lat="34.468570" lon="-118.616490">
        <ele>328.908</ele>
        <time>2018-12-27T22:51:57Z</time>
      </trkpt>
      <trkpt lat="34.468910" lon="-118.616440">
        <ele>328.924</ele>
        <time>2018-12-27T22:52:17Z</time>
      </trkpt>
      <trkpt lat="34.469100" lon="-118.616410">
        <ele>329.032</ele>
        <time>2018-12-27T22:52:37Z</time>
      </trkpt>
      <trkpt lat="34.469550" lon="-118.616310">
        <ele>328.967</ele>
        <time>2018-12-27T22:52:57Z</time>
      </trkpt>
      <trkpt lat="34.470240" lon="-118.616160">
        <ele>330.336</ele>
        <time>2018-12-27T22:53:17Z</time>
      </trkpt>
      <trkpt lat="34.470940" lon="-118.615990">
        <ele>330.350</ele>
        <time>2018-12-27T22:53:37Z</time>
      </trkpt>
      <trkpt lat="34.471980" lon="-118.615760">
        <ele>331.563</ele>
        <time>2018-12-27T22:53:57Z</time>
      </trkpt>
      <trkpt lat="34.472930" lon="-118.615540">
        <ele>331.937</ele>
        <time>2018-12-27T22:54:17Z</time>
      </trkpt>
      <trkpt lat="34.473880" lon="-118.615330">
        <ele>332.890</ele>
        <time>2018-12-27T22:54:37Z</time>
      </trkpt>
      <trkpt lat="34.475100" lon="-118.615050">
        <ele>333.494</ele>
        <time>2018-12-27T22:54:57Z</time>
      </trkpt>
      <trkpt lat="34.475910" lon="-118.614870">
        <ele>334.657</ele>
        <time>2018-12-27T22:55:17Z</time>
      </trkpt>
      <trkpt lat="34.476640" lon="-118.614710">
        <ele>334.822</ele>
        <time>2018-12-27T22:55:37Z</time>
      </trkpt>
      <trkpt lat="34.477420" lon="-118.614530">
        <ele>335.908</ele>
        <time>2018-12-27T22:55:57Z</time>
      </trkpt>
      <trkpt lat="34.477880" lon="-118.614440">
        <ele>336.112</ele>
        <time>2018-12-27T22:56:17Z</time>
      </trkpt>
      <trkpt lat="34.478480" lon="-118.614350">
        <ele>336.670</ele>
        <time>2018-12-27T22:56:37Z</time>
      </trkpt>
      <trkpt lat="34.479090" lon="-118.614300">
        <ele>337.555</ele>
        <time>2018-12-27T22:56:57Z</time>
      </trkpt>
      <trkpt lat="34.479590" lon="-118.614280">
        <ele>338.554</ele>
        <time>2018-12-27T22:57:17Z</time>
      </trkpt>
      <trkpt lat="34.480260" lon="-118.614300">
        <ele>340.658</ele>
        <time>2018-12-27T22:57:37Z</time>
      </trkpt>
      <trkpt lat="34.480620" lon="-118.614330">
        <ele>341.691</ele>
        <time>2018-12-27T22:57:57Z</time>
      </trkpt>
      <trkpt lat="34.481240" lon="-118.614400">
        <ele>341.695</ele>
        <time>2018-12-27T22:58:17Z</time>
      </trkpt>
      <trkpt lat="34.481520" lon="-118.614440">
        <ele>342.198</ele>
        <time>2018-12-27T22:58:37Z</time>
      </trkpt>
      <trkpt lat="34.481880" lon="-118.614500">
        <ele>341.573</ele>
        <time>2018-12-27T22:58:57Z</time>
      </trkpt>
      <trkpt lat="34.482280" lon="-118.614600">
        <ele>340.985</ele>
        <time>2018-12-27T22:59:17Z</time>
      </trkpt>
      <trkpt lat="34.482590" lon="-118.614690">
        <ele>340.913</ele>
        <time>2018-12-27T22:59:37Z</time>
      </trkpt>
      <trkpt lat="34.483150" lon="-118.614860">
        <ele>342.208</ele>
        <time>2018-12-27T22:59:57Z</time>
      </trkpt>
      <trkpt lat="34.483650" lon="-118.615050">
        <ele>343.050</ele>
        <time>2018-12-27T23:00:17Z</time>
      </trkpt>
      <trkpt lat="34.484140" lon="-118.615250">
        <ele>343.968</ele>
        <time>2018-12-27T23:00:37Z</time>
      </trkpt>
      <trkpt lat="34.484720" lon="-118.615530">
        <ele>344.523</ele>
        <time>2018-12-27T23:00:57Z</time>
      </trkpt>
      <trkpt lat="34.485300" lon="-118.615850">
        <ele>346.512</ele>
        <time>2018-12-27T23:01:17Z</time>
      </trkpt>
      <trkpt lat="34.485730" lon="-118.616120">
        <ele>346.496</ele>
        <time>2018-12-27T23:01:37Z</time>
      </trkpt>
      <trkpt lat="34.486290" lon="-118.616500">
        <ele>345.419</ele>
        <time>2018-12-27T23:01:57Z</time>
      </trkpt>
      <trkpt lat="34.486810" lon="-118.616900">
        <ele>346.063</ele>
        <time>2018-12-27T23:02:17Z</time>
      </trkpt>
      <trkpt lat="34.487090" lon="-118.617120">
        <ele>348.226</ele>
        <time>2018-12-27T23:02:37Z</time>
      </trkpt>
      <trkpt lat="34.487290" lon="-118.617260">
        <ele>350.321</ele>
        <time>2018-12-27T23:02:57Z</time>
      </trkpt>
      <trkpt lat="34.487860" lon="-118.617680">
        <ele>352.741</ele>
        <time>2018-12-27T23:03:17Z</time>
      </trkpt>
      <trkpt lat="34.488480" lon="-118.618140">
        <ele>355.505</ele>
        <time>2018-12-27T23:03:37Z</time>
      </trkpt>
      <trkpt lat="34.489190" lon="-118.618670">
        <ele>357.708</ele>
        <time>2018-12-27T23:03:57Z</time>
      </trkpt>
      <trkpt lat="34.489340" lon="-118.618780">
        <ele>357.745</ele>
        <time>2018-12-27T23:04:17Z</time>
      </trkpt>
      <trkpt lat="34.489740" lon="-118.619090">
        <ele>357.983</ele>
        <time>2018-12-27T23:04:37Z</time>
      </trkpt>
      <trkpt lat="34.489820" lon="-118.619150">
        <ele>358.058</ele>
        <time>2018-12-27T23:04:57Z</time>
      </trkpt>
      <trkpt lat="34.490090" lon="-118.619350">
        <ele>359.137</ele>
        <time>2018-12-27T23:05:17Z</time>
      </trkpt>
      <trkpt lat="34.490610" lon="-118.619740">
        <ele>359.381</ele>
        <time>2018-12-27T23:05:37Z</time>
      </trkpt>
      <trkpt lat="34.491140" lon="-118.620130">
        <ele>360.014</ele>
        <time>2018-12-27T23:05:57Z</time>
      </trkpt>
      <trkpt lat="34.491830" lon="-118.620660">
        <ele>361.268</ele>
        <time>2018-12-27T23:06:17Z</time>
      </trkpt>
      <trkpt lat="34.492060" lon="-118.620830">
        <ele>361.231</ele>
        <time>2018-12-27T23:06:37Z</time>
      </trkpt>
      <trkpt lat="34.492350" lon="-118.621050">
        <ele>361.836</ele>
        <time>2018-12-27T23:06:57Z</time>
      </trkpt>
      <trkpt lat="34.492390" lon="-118.621080">
        <ele>361.817</ele>
        <time>2018-12-27T23:07:17Z</time>
      </trkpt>
      <trkpt lat="34.492750" lon="-118.621340">
        <ele>362.418</ele>
        <time>2018-12-27T23:07:37Z</time>
      </trkpt>
      <trkpt lat="34.493060" lon="-118.621570">
        <ele>362.708</ele>
        <time>2018-12-27T23:07:57Z</time>
      </trkpt>
      <trkpt lat="34.493330" lon="-118.621780">
        <ele>363.096</ele>
        <time>2018-12-27T23:08:17Z</time>
      </trkpt>
      <trkpt lat="34.493770" lon="-118.622100">
        <ele>364.024</ele>
        <time>2018-12-27T23:08:37Z</time>
      </trkpt>
      <trkpt lat="34.494260" lon="-118.622470">
        <ele>364.169</ele>
        <time>2018-12-27T23:08:57Z</time>
      </trkpt>
      <trkpt lat="34.494620" lon="-118.622740">
        <ele>364.178</ele>
        <time>2018-12-27T23:09:17Z</time>
      </trkpt>
      <trkpt lat="34.495080" lon="-118.623080">
        <ele>363.992</ele>
        <time>2018-12-27T23:09:37Z</time>
      </trkpt>
      <trkpt lat="34.495920" lon="-118.623710">
        <ele>364.485</ele>
        <time>2018-12-27T23:09:57Z</time>
      </trkpt>
      <trkpt lat="34.496010" lon="-118.623780">
        <ele>364.449</ele>
        <time>2018-12-27T23:10:17Z</time>
      </trkpt>
      <trkpt lat="34.496460" lon="-118.624120">
        <ele>364.362</ele>
        <time>2018-12-27T23:10:37Z</time>
      </trkpt>
      <trkpt lat="34.496980" lon="-118.624510">
        <ele>363.786</ele>
        <time>2018-12-27T23:10:57Z</time>
      </trkpt>
      <trkpt lat="34.497480" lon="-118.624880">
        <ele>366.960</ele>
        <time>2018-12-27T23:11:17Z</time>
      </trkpt>
      <trkpt lat="34.497790" lon="-118.625080">
        <ele>369.326</ele>
        <time>2018-12-27T23:11:37Z</time>
      </trkpt>
      <trkpt lat="34.497950" lon="-118.625190">
        <ele>370.508</ele>
        <time>2018-12-27T23:11:57Z</time>
      </trkpt>
      <trkpt lat="34.498310" lon="-118.625390">
        <ele>372.821</ele>
        <time>2018-12-27T23:12:17Z</time>
      </trkpt>
      <trkpt lat="34.498530" lon="-118.625510">
        <ele>374.559</ele>
        <time>2018-12-27T23:12:37Z</time>
      </trkpt>
      <trkpt lat="34.498740" lon="-118.625600">
        <ele>376.344</ele>
        <time>2018-12-27T23:12:57Z</time>
      </trkpt>
      <trkpt lat="34.498950" lon="-118.625690">
        <ele>377.623</ele>
        <time>2018-12-27T23:13:17Z</time>
      </trkpt>
      <trkpt lat="34.499250" lon="-118.625830">
        <ele>378.997</ele>
        <time>2018-12-27T23:13:37Z</time>
      </trkpt>
      <trkpt lat="34.499440" lon="-118.625920">
        <ele>379.840</ele>
        <time>2018-12-27T23:13:57Z</time>
      </trkpt>
      <trkpt lat="34.499900" lon="-118.626110">
        <ele>379.984</ele>
        <time>2018-12-27T23:14:17Z</time>
      </trkpt>
      <trkpt lat="34.500310" lon="-118.626280">
        <ele>378.047</ele>
        <time>2018-12-27T23:14:37Z</time>
      </trkpt>
      <trkpt lat="34.500630" lon="-118.626440">
        <ele>376.663</ele>
        <time>2018-12-27T23:14:57Z</time>
      </trkpt>
      <trkpt lat="34.501050" lon="-118.626670">
        <ele>375.644</ele>
        <time>2018-12-27T23:15:17Z</time>
      </trkpt>
      <trkpt lat="34.501370" lon="-118.626870">
        <ele>375.518</ele>
        <time>2018-12-27T23:15:37Z</time>
      </trkpt>
      <trkpt lat="34.501630" lon="-118.627040">
        <ele>375.908</ele>
        <time>2018-12-27T23:15:57Z</time>
      </trkpt>
      <trkpt lat="34.501780" lon="-118.627160">
        <ele>376.349</ele>
        <time>2018-12-27T23:16:17Z</time>
      </trkpt>
      <trkpt lat="34.501950" lon="-118.627290">
        <ele>377.137</ele>
        <time>2018-12-27T23:16:37Z</time>
      </trkpt>
      <trkpt lat="34.502080" lon="-118.627400">
        <ele>377.942</ele>
        <time>2018-12-27T23:16:57Z</time>
      </trkpt>
      <trkpt lat="34.502420" lon="-118.627680">
        <ele>379.581</ele>
        <time>2018-12-27T23:17:17Z</time>
      </trkpt>
      <trkpt lat="34.502550" lon="-118.627810">
        <ele>379.685</ele>
        <time>2018-12-27T23:17:37Z</time>
      </trkpt>
      <trkpt lat="34.502760" lon="-118.628020">
        <ele>379.728</ele>
        <time>2018-12-27T23:17:57Z</time>
      </trkpt>
      <trkpt lat="34.502910" lon="-118.628180">
        <ele>379.882</ele>
        <time>2018-12-27T23:18:17Z</time>
      </trkpt>
      <trkpt lat="34.503110" lon="-118.628390">
        <ele>379.955</ele>
        <time>2018-12-27T23:18:37Z</time>
      </trkpt>
      <trkpt lat="34.503520" lon="-118.628880">
        <ele>379.783</ele>
        <time>2018-12-27T23:18:57Z</time>
      </trkpt>
      <trkpt lat="34.503780" lon="-118.629200">
        <ele>379.425</ele>
        <time>2018-12-27T23:19:17Z</time>
      </trkpt>
      <trkpt lat="34.504050" lon="-118.629520">
        <ele>380.017</ele>
        <time>2018-12-27T23:19:37Z</time>
      </trkpt>
      <trkpt lat="34.504280" lon="-118.629800">
        <ele>380.808</ele>
        <time>2018-12-27T23:19:57Z</time>
      </trkpt>
      <trkpt lat="34.504610" lon="-118.630190">
        <ele>383.281</ele>
        <time>2018-12-27T23:20:17Z</time>
      </trkpt>
      <trkpt lat="34.504870" lon="-118.630450">
        <ele>385.079</ele>
        <time>2018-12-27T23:20:37Z</time>
      </trkpt>
      <trkpt lat="34.505130" lon="-118.630700">
        <ele>386.514</ele>
        <time>2018-12-27T23:20:57Z</time>
      </trkpt>
      <trkpt lat="34.505400" lon="-118.630940">
        <ele>386.833</ele>
        <time>2018-12-27T23:21:17Z</time>
      </trkpt>
      <trkpt lat="34.505760" lon="-118.631230">
        <ele>387.397</ele>
        <time>2018-12-27T23:21:37Z</time>
      </trkpt>
      <trkpt lat="34.506170" lon="-118.631540">
        <ele>387.370</ele>
        <time>2018-12-27T23:21:57Z</time>
      </trkpt>
      <trkpt lat="34.506720" lon="-118.631950">
        <ele>387.274</ele>
        <time>2018-12-27T23:22:17Z</time>
      </trkpt>
      <trkpt lat="34.506980" lon="-118.632150">
        <ele>387.417</ele>
        <time>2018-12-27T23:22:37Z</time>
      </trkpt>
      <trkpt lat="34.507260" lon="-118.632360">
        <ele>387.898</ele>
        <time>2018-12-27T23:22:57Z</time>
      </trkpt>
      <trkpt lat="34.507520" lon="-118.632550">
        <ele>388.315</ele>
        <time>2018-12-27T23:23:17Z</time>
      </trkpt>
      <trkpt lat="34.507830" lon="-118.632780">
        <ele>389.026</ele>
        <time>2018-12-27T23:23:37Z</time>
      </trkpt>
      <trkpt lat="34.508150" lon="-118.633010">
        <ele>389.708</ele>
        <time>2018-12-27T23:23:57Z</time>
      </trkpt>
      <trkpt lat="34.508240" lon="-118.633080">
        <ele>390.012</ele>
        <time>2018-12-27T23:24:17Z</time>
      </trkpt>
      <trkpt lat="34.508580" lon="-118.633340">
        <ele>391.350</ele>
        <time>2018-12-27T23:24:37Z</time>
      </trkpt>
      <trkpt lat="34.509120" lon="-118.633740">
        <ele>394.735</ele>
        <time>2018-12-27T23:24:57Z</time>
      </trkpt>
      <trkpt lat="34.509520" lon="-118.634040">
        <ele>396.234</ele>
        <time>2018-12-27T23:25:17Z</time>
      </trkpt>
      <trkpt lat="34.510040" lon="-118.634430">
        <ele>396.438</ele>
        <time>2018-12-27T23:25:37Z</time>
      </trkpt>
      <trkpt lat="34.510290" lon="-118.634620">
        <ele>396.761</ele>
        <time>2018-12-27T23:25:57Z</time>
      </trkpt>
      <trkpt lat="34.510510" lon="-118.634780">
        <ele>397.275</ele>
        <time>2018-12-27T23:26:17Z</time>
      </trkpt>
      <trkpt lat="34.510850" lon="-118.635020">
        <ele>398.278</ele>
        <time>2018-12-27T23:26:37Z</time>
      </trkpt>
      <trkpt lat="34.511080" lon="-118.635180">
        <ele>399.472</ele>
        <time>2018-12-27T23:26:57Z</time>
      </trkpt>
      <trkpt lat="34.511370" lon="-118.635380">
        <ele>399.913</ele>
        <time>2018-12-27T23:27:17Z</time>
      </trkpt>
      <trkpt lat="34.511800" lon="-118.635670">
        <ele>399.714</ele>
        <time>2018-12-27T23:27:37Z</time>
      </trkpt>
      <trkpt lat="34.512300" lon="-118.635990">
        <ele>400.208</ele>
        <time>2018-12-27T23:27:57Z</time>
      </trkpt>
      <trkpt lat="34.512910" lon="-118.636400">
        <ele>398.430</ele>
        <time>2018-12-27T23:28:17Z</time>
      </trkpt>
      <trkpt lat="34.513500" lon="-118.636790">
        <ele>398.948</ele>
        <time>2018-12-27T23:28:37Z</time>
      </trkpt>
      <trkpt lat="34.513960" lon="-118.637080">
        <ele>401.863</ele>
        <time>2018-12-27T23:28:57Z</time>
      </trkpt>
      <trkpt lat="34.514540" lon="-118.637450">
        <ele>400.462</ele>
        <time>2018-12-27T23:29:17Z</time>
      </trkpt>
      <trkpt lat="34.515130" lon="-118.637830">
        <ele>405.366</ele>
        <time>2018-12-27T23:29:37Z</time>
      </trkpt>
      <trkpt lat="34.515600" lon="-118.638140">
        <ele>406.839</ele>
        <time>2018-12-27T23:29:57Z</time>
      </trkpt>
      <trkpt lat="34.515950" lon="-118.638380">
        <ele>407.113</ele>
        <time>2018-12-27T23:30:17Z</time>
      </trkpt>
      <trkpt lat="34.516250" lon="-118.638620">
        <ele>407.736</ele>
        <time>2018-12-27T23:30:37Z</time>
      </trkpt>
      <trkpt lat="34.516440" lon="-118.638790">
        <ele>407.978</ele>
        <time>2018-12-27T23:30:57Z</time>
      </trkpt>
      <trkpt lat="34.516630" lon="-118.638990">
        <ele>408.333</ele>
        <time>2018-12-27T23:31:17Z</time>
      </trkpt>
      <trkpt lat="34.516820" lon="-118.639180">
        <ele>408.526</ele>
        <time>2018-12-27T23:31:37Z</time>
      </trkpt>
      <trkpt lat="34.517000" lon="-118.639390">
        <ele>408.808</ele>
        <time>2018-12-27T23:31:57Z</time>
      </trkpt>
      <trkpt lat="34.517130" lon="-118.639560">
        <ele>409.470</ele>
        <time>2018-12-27T23:32:17Z</time>
      </trkpt>
      <trkpt lat="34.517280" lon="-118.639780">
        <ele>411.188</ele>
        <time>2018-12-27T23:32:37Z</time>
      </trkpt>
      <trkpt lat="34.517470" lon="-118.640050">
        <ele>414.043</ele>
        <time>2018-12-27T23:32:57Z</time>
      </trkpt>
      <trkpt lat="34.517540" lon="-118.640160">
        <ele>415.722</ele>
        <time>2018-12-27T23:33:17Z</time>
      </trkpt>
      <trkpt lat="34.517650" lon="-118.640350">
        <ele>418.186</ele>
        <time>2018-12-27T23:33:37Z</time>
      </trkpt>
      <trkpt lat="34.517810" lon="-118.640660">
        <ele>418.949</ele>
        <time>2018-12-27T23:33:57Z</time>
      </trkpt>
      <trkpt lat="34.518000" lon="-118.641080">
        <ele>420.043</ele>
        <time>2018-12-27T23:34:17Z</time>
      </trkpt>
      <trkpt lat="34.518170" lon="-118.641460">
        <ele>420.316</ele>
        <time>2018-12-27T23:34:37Z</time>
      </trkpt>
      <trkpt lat="34.518340" lon="-118.641830">
        <ele>421.465</ele>
        <time>2018-12-27T23:34:57Z</time>
      </trkpt>
      <trkpt lat="34.518490" lon="-118.642110">
        <ele>426.868</ele>
        <time>2018-12-27T23:35:17Z</time>
      </trkpt>
      <trkpt lat="34.518690" lon="-118.642470">
        <ele>431.914</ele>
        <time>2018-12-27T23:35:37Z</time>
      </trkpt>
      <trkpt lat="34.518770" lon="-118.642590">
        <ele>432.808</ele>
        <time>2018-12-27T23:35:57Z</time>
      </trkpt>
      <trkpt lat="34.518920" lon="-118.642820">
        <ele>433.939</ele>
        <time>2018-12-27T23:36:17Z</time>
      </trkpt>
      <trkpt lat="34.519150" lon="-118.643140">
        <ele>434.857</ele>
        <time>2018-12-27T23:36:37Z</time>
      </trkpt>
      <trkpt lat="34.519420" lon="-118.643500">
        <ele>436.382</ele>
        <time>2018-12-27T23:36:57Z</time>
      </trkpt>
      <trkpt lat="34.519680" lon="-118.643830">
        <ele>440.741</ele>
        <time>2018-12-27T23:37:17Z</time>
      </trkpt>
      <trkpt lat="34.519830" lon="-118.644020">
        <ele>444.465</ele>
        <time>2018-12-27T23:37:37Z</time>
      </trkpt>
      <trkpt lat="34.520040" lon="-118.644310">
        <ele>446.878</ele>
        <time>2018-12-27T23:37:57Z</time>
      </trkpt>
      <trkpt lat="34.520290" lon="-118.644620">
        <ele>445.832</ele>
        <time>2018-12-27T23:38:17Z</time>
      </trkpt>
      <trkpt lat="34.520420" lon="-118.644780">
        <ele>445.385</ele>
        <time>2018-12-27T23:38:37Z</time>
      </trkpt>
      <trkpt lat="34.520570" lon="-118.644950">
        <ele>446.136</ele>
        <time>2018-12-27T23:38:57Z</time>
      </trkpt>
      <trkpt lat="34.520870" lon="-118.645250">
        <ele>447.317</ele>
        <time>2018-12-27T23:39:17Z</time>
      </trkpt>
      <trkpt lat="34.521100" lon="-118.645450">
        <ele>448.718</ele>
        <time>2018-12-27T23:39:37Z</time>
      </trkpt>
      <trkpt lat="34.521340" lon="-118.645650">
        <ele>453.808</ele>
        <time>2018-12-27T23:39:57Z</time>
      </trkpt>
      <trkpt lat="34.521540" lon="-118.645800">
        <ele>457.896</ele>
        <time>2018-12-27T23:40:17Z</time>
      </trkpt>
      <trkpt lat="34.521620" lon="-118.645860">
        <ele>458.244</ele>
        <time>2018-12-27T23:40:37Z</time>
      </trkpt>
      <trkpt lat="34.521750" lon="-118.645940">
        <ele>458.619</ele>
        <time>2018-12-27T23:40:57Z</time>
      </trkpt>
      <trkpt lat="34.522110" lon="-118.646140">
        <ele>459.158</ele>
        <time>2018-12-27T23:41:17Z</time>
      </trkpt>
      <trkpt lat="34.522460" lon="-118.646310">
        <ele>459.972</ele>
        <time>2018-12-27T23:41:37Z</time>
      </trkpt>
      <trkpt lat="34.522720" lon="-118.646430">
        <ele>460.635</ele>
        <time>2018-12-27T23:41:57Z</time>
      </trkpt>
      <trkpt lat="34.523070" lon="-118.646600">
        <ele>466.639</ele>
        <time>2018-12-27T23:42:17Z</time>
      </trkpt>
      <trkpt lat="34.523380" lon="-118.646740">
        <ele>468.142</ele>
        <time>2018-12-27T23:42:37Z</time>
      </trkpt>
      <trkpt lat="34.523710" lon="-118.646900">
        <ele>467.648</ele>
        <time>2018-12-27T23:42:57Z</time>
      </trkpt>
      <trkpt lat="34.524230" lon="-118.647140">
        <ele>471.361</ele>
        <time>2018-12-27T23:43:17Z</time>
      </trkpt>
      <trkpt lat="34.524620" lon="-118.647320">
        <ele>476.317</ele>
        <time>2018-12-27T23:43:37Z</time>
      </trkpt>
      <trkpt lat="34.524970" lon="-118.647490">
        <ele>481.308</ele>
        <time>2018-12-27T23:43:57Z</time>
      </trkpt>
      <trkpt lat="34.525450" lon="-118.647710">
        <ele>484.037</ele>
        <time>2018-12-27T23:44:17Z</time>
      </trkpt>
      <trkpt lat="34.525990" lon="-118.647980">
        <ele>488.225</ele>
        <time>2018-12-27T23:44:37Z</time>
      </trkpt>
      <trkpt lat="34.526520" lon="-118.648230">
        <ele>488.950</ele>
        <time>2018-12-27T23:44:57Z</time>
      </trkpt>
      <trkpt lat="34.527180" lon="-118.648540">
        <ele>497.319</ele>
        <time>2018-12-27T23:45:17Z</time>
      </trkpt>
      <trkpt lat="34.527620" lon="-118.648740">
        <ele>496.683</ele>
        <time>2018-12-27T23:45:37Z</time>
      </trkpt>
      <trkpt lat="34.528120" lon="-118.648980">
        <ele>498.546</ele>
        <time>2018-12-27T23:45:57Z</time>
      </trkpt>
      <trkpt lat="34.528700" lon="-118.649260">
        <ele>509.040</ele>
        <time>2018-12-27T23:46:17Z</time>
      </trkpt>
      <trkpt lat="34.529130" lon="-118.649470">
        <ele>509.563</ele>
        <time>2018-12-27T23:46:37Z</time>
      </trkpt>
      <trkpt lat="34.529820" lon="-118.649790">
        <ele>509.443</ele>
        <time>2018-12-27T23:46:57Z</time>
      </trkpt>
      <trkpt lat="34.530050" lon="-118.649910">
        <ele>515.364</ele>
        <time>2018-12-27T23:47:17Z</time>
      </trkpt>
      <trkpt lat="34.530510" lon="-118.650120">
        <ele>519.710</ele>
        <time>2018-12-27T23:47:37Z</time>
      </trkpt>
      <trkpt lat="34.531070" lon="-118.650380">
        <ele>519.508</ele>
        <time>2018-12-27T23:47:57Z</time>
      </trkpt>
      <trkpt lat="34.531630" lon="-118.650650">
        <ele>523.247</ele>
        <time>2018-12-27T23:48:17Z</time>
      </trkpt>
      <trkpt lat="34.532260" lon="-118.650940">
        <ele>531.475</ele>
        <time>2018-12-27T23:48:37Z</time>
      </trkpt>
      <trkpt lat="34.532700" lon="-118.651160">
        <ele>531.780</ele>
        <time>2018-12-27T23:48:57Z</time>
      </trkpt>
      <trkpt lat="34.533070" lon="-118.651340">
        <ele>531.839</ele>
        <time>2018-12-27T23:49:17Z</time>
      </trkpt>
      <trkpt lat="34.533360" lon="-118.651510">
        <ele>537.563</ele>
        <time>2018-12-27T23:49:37Z</time>
      </trkpt>
      <trkpt lat="34.533600" lon="-118.651660">
        <ele>543.086</ele>
        <time>2018-12-27T23:49:57Z</time>
      </trkpt>
      <trkpt lat="34.533810" lon="-118.651820">
        <ele>544.770</ele>
        <time>2018-12-27T23:50:17Z</time>
      </trkpt>
      <trkpt lat="34.533970" lon="-118.651940">
        <ele>545.063</ele>
        <time>2018-12-27T23:50:37Z</time>
      </trkpt>
      <trkpt lat="34.534110" lon="-118.652060">
        <ele>545.342</ele>
        <time>2018-12-27T23:50:57Z</time>
      </trkpt>
      <trkpt lat="34.534320" lon="-118.652260">
        <ele>545.622</ele>
        <time>2018-12-27T23:51:17Z</time>
      </trkpt>
      <trkpt lat="34.534490" lon="-118.652420">
        <ele>545.314</ele>
        <time>2018-12-27T23:51:37Z</time>
      </trkpt>
      <trkpt lat="34.534680" lon="-118.652650">
        <ele>545.508</ele>
        <time>2018-12-27T23:51:57Z</time>
      </trkpt>
      <trkpt lat="34.534880" lon="-118.652880">
        <ele>547.457</ele>
        <time>2018-12-27T23:52:17Z</time>
      </trkpt>
      <trkpt lat="34.535030" lon="-118.653080">
        <ele>551.895</ele>
        <time>2018-12-27T23:52:37Z</time>
      </trkpt>
      <trkpt lat="34.535250" lon="-118.653370">
        <ele>554.260</ele>
        <time>2018-12-27T23:52:57Z</time>
      </trkpt>
      <trkpt lat="34.535550" lon="-118.653770">
        <ele>555.449</ele>
        <time>2018-12-27T23:53:17Z</time>
      </trkpt>
      <trkpt lat="34.535760" lon="-118.654050">
        <ele>557.873</ele>
        <time>2018-12-27T23:53:37Z</time>
      </trkpt>
      <trkpt lat="34.536090" lon="-118.654400">
        <ele>564.986</ele>
        <time>2018-12-27T23:53:57Z</time>
      </trkpt>
      <trkpt lat="34.536400" lon="-118.654690">
        <ele>567.150</ele>
        <time>2018-12-27T23:54:17Z</time>
      </trkpt>
      <trkpt lat="34.536580" lon="-118.654860">
        <ele>568.393</ele>
        <time>2018-12-27T23:54:37Z</time>
      </trkpt>
      <trkpt lat="34.536980" lon="-118.655140">
        <ele>568.693</ele>
        <time>2018-12-27T23:54:57Z</time>
      </trkpt>
      <trkpt lat="34.537480" lon="-118.655470">
        <ele>574.365</ele>
        <time>2018-12-27T23:55:17Z</time>
      </trkpt>
      <trkpt lat="34.537740" lon="-118.655660">
        <ele>577.421</ele>
        <time>2018-12-27T23:55:37Z</time>
      </trkpt>
      <trkpt lat="34.537960" lon="-118.655840">
        <ele>578.608</ele>
        <time>2018-12-27T23:55:57Z</time>
      </trkpt>
      <trkpt lat="34.538320" lon="-118.656170">
        <ele>579.472</ele>
        <time>2018-12-27T23:56:17Z</time>
      </trkpt>
      <trkpt lat="34.538560" lon="-118.656430">
        <ele>580.520</ele>
        <time>2018-12-27T23:56:37Z</time>
      </trkpt>
      <trkpt lat="34.538770" lon="-118.656670">
        <ele>582.355</ele>
        <time>2018-12-27T23:56:57Z</time>
      </trkpt>
      <trkpt lat="34.538910" lon="-118.656870">
        <ele>586.854</ele>
        <time>2018-12-27T23:57:17Z</time>
      </trkpt>
      <trkpt lat="34.539140" lon="-118.657190">
        <ele>590.618</ele>
        <time>2018-12-27T23:57:37Z</time>
      </trkpt>
      <trkpt lat="34.539320" lon="-118.657450">
        <ele>591.741</ele>
        <time>2018-12-27T23:57:57Z</time>
      </trkpt>
      <trkpt lat="34.539620" lon="-118.657850">
        <ele>593.215</ele>
        <time>2018-12-27T23:58:17Z</time>
      </trkpt>
      <trkpt lat="34.539870" lon="-118.658170">
        <ele>595.548</ele>
        <time>2018-12-27T23:58:37Z</time>
      </trkpt>
      <trkpt lat="34.540160" lon="-118.658470">
        <ele>601.714</ele>
        <time>2018-12-27T23:58:57Z</time>
      </trkpt>
      <trkpt lat="34.540410" lon="-118.658710">
        <ele>603.354</ele>
        <time>2018-12-27T23:59:17Z</time>
      </trkpt>
      <trkpt lat="34.541040" lon="-118.659270">
        <ele>606.209</ele>
        <time>2018-12-27T23:59:37Z</time>
      </trkpt>
      <trkpt lat="34.541380" lon="-118.659580">
        <ele>607.108</ele>
        <time>2018-12-27T23:59:57Z</time>
      </trkpt>
      <trkpt lat="34.541730" lon="-118.659910">
        <ele>613.594</ele>
        <time>2018-12-28T00:00:17Z</time>
      </trkpt>
      <trkpt lat="34.542290" lon="-118.660410">
        <ele>612.112</ele>
        <time>2018-12-28T00:00:37Z</time>
      </trkpt>
      <trkpt lat="34.542440" lon="-118.660550">
        <ele>612.117</ele>
        <time>2018-12-28T00:00:57Z</time>
      </trkpt>
      <trkpt lat="34.542740" lon="-118.660830">
        <ele>613.136</ele>
        <time>2018-12-28T00:01:17Z</time>
      </trkpt>
      <trkpt lat="34.543110" lon="-118.661200">
        <ele>615.390</ele>
        <time>2018-12-28T00:01:37Z</time>
      </trkpt>
      <trkpt lat="34.543450" lon="-118.661530">
        <ele>619.863</ele>
        <time>2018-12-28T00:01:57Z</time>
      </trkpt>
      <trkpt lat="34.543690" lon="-118.661780">
        <ele>626.547</ele>
        <time>2018-12-28T00:02:17Z</time>
      </trkpt>
      <trkpt lat="34.544340" lon="-118.662450">
        <ele>632.370</ele>
        <time>2018-12-28T00:02:37Z</time>
      </trkpt>
      <trkpt lat="34.544740" lon="-118.662880">
        <ele>636.849</ele>
        <time>2018-12-28T00:02:57Z</time>
      </trkpt>
      <trkpt lat="34.545110" lon="-118.663270">
        <ele>640.502</ele>
        <time>2018-12-28T00:03:17Z</time>
      </trkpt>
      <trkpt lat="34.545250" lon="-118.663430">
        <ele>641.222</ele>
        <time>2018-12-28T00:03:37Z</time>
      </trkpt>
      <trkpt lat="34.545380" lon="-118.663580">
        <ele>640.808</ele>
        <time>2018-12-28T00:03:57Z</time>
      </trkpt>
      <trkpt lat="34.545470" lon="-118.663690">
        <ele>641.287</ele>
        <time>2018-12-28T00:04:17Z</time>
      </trkpt>
      <trkpt lat="34.545700" lon="-118.664000">
        <ele>642.255</ele>
        <time>2018-12-28T00:04:37Z</time>
      </trkpt>
      <trkpt lat="34.546000" lon="-118.664420">
        <ele>645.640</ele>
        <time>2018-12-28T00:04:57Z</time>
      </trkpt>
      <trkpt lat="34.546150" lon="-118.664670">
        <ele>650.069</ele>
        <time>2018-12-28T00:05:17Z</time>
      </trkpt>
      <trkpt lat="34.546370" lon="-118.665020">
        <ele>653.613</ele>
        <time>2018-12-28T00:05:37Z</time>
      </trkpt>
      <trkpt lat="34.546600" lon="-118.665370">
        <ele>658.296</ele>
        <time>2018-12-28T00:05:57Z</time>
      </trkpt>
      <trkpt lat="34.546880" lon="-118.665810">
        <ele>657.190</ele>
        <time>2018-12-28T00:06:17Z</time>
      </trkpt>
      <trkpt lat="34.547160" lon="-118.666230">
        <ele>657.913</ele>
        <time>2018-12-28T00:06:37Z</time>
      </trkpt>
      <trkpt lat="34.547340" lon="-118.666510">
        <ele>660.086</ele>
        <time>2018-12-28T00:06:57Z</time>
      </trkpt>
      <trkpt lat="34.547560" lon="-118.666820">
        <ele>663.960</ele>
        <time>2018-12-28T00:07:17Z</time>
      </trkpt>
      <trkpt lat="34.547790" lon="-118.667140">
        <ele>668.326</ele>
        <time>2018-12-28T00:07:37Z</time>
      </trkpt>
      <trkpt lat="34.548160" lon="-118.667590">
        <ele>671.708</ele>
        <time>2018-12-28T00:07:57Z</time>
      </trkpt>
      <trkpt lat="34.548580" lon="-118.668030">
        <ele>677.421</ele>
        <time>2018-12-28T00:08:17Z</time>
      </trkpt>
      <trkpt lat="34.549010" lon="-118.668440">
        <ele>680.639</ele>
        <time>2018-12-28T00:08:37Z</time>
      </trkpt>
      <trkpt lat="34.549260" lon="-118.668670">
        <ele>681.274</ele>
        <time>2018-12-28T00:08:57Z</time>
      </trkpt>
      <trkpt lat="34.549580" lon="-118.668930">
        <ele>684.623</ele>
        <time>2018-12-28T00:09:17Z</time>
      </trkpt>
      <trkpt lat="34.549920" lon="-118.669210">
        <ele>688.577</ele>
        <time>2018-12-28T00:09:37Z</time>
      </trkpt>
      <trkpt lat="34.550250" lon="-118.669470">
        <ele>691.380</ele>
        <time>2018-12-28T00:09:57Z</time>
      </trkpt>
      <trkpt lat="34.550540" lon="-118.669700">
        <ele>690.924</ele>
        <time>2018-12-28T00:10:17Z</time>
      </trkpt>
      <trkpt lat="34.550860" lon="-118.669930">
        <ele>694.347</ele>
        <time>2018-12-28T00:10:37Z</time>
      </trkpt>
      <trkpt lat="34.551150" lon="-118.670110">
        <ele>697.754</ele>
        <time>2018-12-28T00:10:57Z</time>
      </trkpt>
      <trkpt lat="34.551360" lon="-118.670220">
        <ele>698.856</ele>
        <time>2018-12-28T00:11:17Z</time>
      </trkpt>
      <trkpt lat="34.551660" lon="-118.670360">
        <ele>701.611</ele>
        <time>2018-12-28T00:11:37Z</time>
      </trkpt>
      <trkpt lat="34.551890" lon="-118.670460">
        <ele>701.708</ele>
        <time>2018-12-28T00:11:57Z</time>
      </trkpt>
      <trkpt lat="34.552160" lon="-118.670540">
        <ele>703.998</ele>
        <time>2018-12-28T00:12:17Z</time>
      </trkpt>
      <trkpt lat="34.552420" lon="-118.670620">
        <ele>706.476</ele>
        <time>2018-12-28T00:12:37Z</time>
      </trkpt>
      <trkpt lat="34.552560" lon="-118.670660">
        <ele>707.551</ele>
        <time>2018-12-28T00:12:57Z</time>
      </trkpt>
      <trkpt lat="34.552880" lon="-118.670740">
        <ele>709.520</ele>
        <time>2018-12-28T00:13:17Z</time>
      </trkpt>
      <trkpt lat="34.553550" lon="-118.670940">
        <ele>706.774</ele>
        <time>2018-12-28T00:13:37Z</time>
      </trkpt>
      <trkpt lat="34.553610" lon="-118.670970">
        <ele>707.357</ele>
        <time>2018-12-28T00:13:57Z</time>
      </trkpt>
      <trkpt lat="34.553810" lon="-118.671060">
        <ele>709.771</ele>
        <time>2018-12-28T00:14:17Z</time>
      </trkpt>
      <trkpt lat="34.554060" lon="-118.671180">
        <ele>715.024</ele>
        <time>2018-12-28T00:14:37Z</time>
      </trkpt>
      <trkpt lat="34.554260" lon="-118.671290">
        <ele>718.385</ele>
        <time>2018-12-28T00:14:57Z</time>
      </trkpt>
      <trkpt lat="34.554320" lon="-118.671330">
        <ele>719.589</ele>
        <time>2018-12-28T00:15:17Z</time>
      </trkpt>
      <trkpt lat="34.554510" lon="-118.671440">
        <ele>720.317</ele>
        <time>2018-12-28T00:15:37Z</time>
      </trkpt>
      <trkpt lat="34.554750" lon="-118.671600">
        <ele>722.908</ele>
        <time>2018-12-28T00:15:57Z</time>
      </trkpt>
      <trkpt lat="34.555010" lon="-118.671810">
        <ele>724.751</ele>
        <time>2018-12-28T00:16:17Z</time>
      </trkpt>
      <trkpt lat="34.555390" lon="-118.672110">
        <ele>728.059</ele>
        <time>2018-12-28T00:16:37Z</time>
      </trkpt>
      <trkpt lat="34.555780" lon="-118.672430">
        <ele>731.164</ele>
        <time>2018-12-28T00:16:57Z</time>
      </trkpt>
      <trkpt lat="34.556250" lon="-118.672810">
        <ele>734.723</ele>
        <time>2018-12-28T00:17:17Z</time>
      </trkpt>
      <trkpt lat="34.556540" lon="-118.673040">
        <ele>737.837</ele>
        <time>2018-12-28T00:17:37Z</time>
      </trkpt>
      <trkpt lat="34.556840" lon="-118.673280">
        <ele>740.850</ele>
        <time>2018-12-28T00:17:57Z</time>
      </trkpt>
      <trkpt lat="34.557240" lon="-118.673630">
        <ele>744.174</ele>
        <time>2018-12-28T00:18:17Z</time>
      </trkpt>
      <trkpt lat="34.557470" lon="-118.673860">
        <ele>744.617</ele>
        <time>2018-12-28T00:18:37Z</time>
      </trkpt>
      <trkpt lat="34.557580" lon="-118.673970">
        <ele>744.832</ele>
        <time>2018-12-28T00:18:57Z</time>
      </trkpt>
      <trkpt lat="34.557750" lon="-118.674180">
        <ele>745.392</ele>
        <time>2018-12-28T00:19:17Z</time>
      </trkpt>
      <trkpt lat="34.557840" lon="-118.674290">
        <ele>745.511</ele>
        <time>2018-12-28T00:19:37Z</time>
      </trkpt>
      <trkpt lat="34.557940" lon="-118.674410">
        <ele>745.108</ele>
        <time>2018-12-28T00:19:57Z</time>
      </trkpt>
      <trkpt lat="34.557980" lon="-118.674460">
        <ele>744.936</ele>
        <time>2018-12-28T00:20:17Z</time>
      </trkpt>
      <trkpt lat="34.558040" lon="-118.674540">
        <ele>745.554</ele>
        <time>2018-12-28T00:20:37Z</time>
      </trkpt>
      <trkpt lat="34.558170" lon="-118.674730">
        <ele>746.569</ele>
        <time>2018-12-28T00:20:57Z</time>
      </trkpt>
      <trkpt lat="34.558230" lon="-118.674820">
        <ele>746.038</ele>
        <time>2018-12-28T00:21:17Z</time>
      </trkpt>
      <trkpt lat="34.558300" lon="-118.674940">
        <ele>746.122</ele>
        <time>2018-12-28T00:21:37Z</time>
      </trkpt>
      <trkpt lat="34.558420" lon="-118.675150">
        <ele>747.665</ele>
        <time>2018-12-28T00:21:57Z</time>
      </trkpt>
      <trkpt lat="34.558520" lon="-118.675330">
        <ele>747.579</ele>
        <time>2018-12-28T00:22:17Z</time>
      </trkpt>
      <trkpt lat="34.558740" lon="-118.675790">
        <ele>748.632</ele>
        <time>2018-12-28T00:22:37Z</time>
      </trkpt>
      <trkpt lat="34.558980" lon="-118.676330">
        <ele>749.755</ele>
        <time>2018-12-28T00:22:57Z</time>
      </trkpt>
      <trkpt lat="34.559100" lon="-118.676590">
        <ele>751.207</ele>
        <time>2018-12-28T00:23:17Z</time>
      </trkpt>
      <trkpt lat="34.559540" lon="-118.677530">
        <ele>752.017</ele>
        <time>2018-12-28T00:23:37Z</time>
      </trkpt>
      <trkpt lat="34.559890" lon="-118.678240">
        <ele>752.808</ele>
        <time>2018-12-28T00:23:57Z</time>
      </trkpt>
      <trkpt lat="34.560110" lon="-118.678640">
        <ele>753.278</ele>
        <time>2018-12-28T00:24:17Z</time>
      </trkpt>
      <trkpt lat="34.560370" lon="-118.679090">
        <ele>753.756</ele>
        <time>2018-12-28T00:24:37Z</time>
      </trkpt>
      <trkpt lat="34.560650" lon="-118.679530">
        <ele>754.621</ele>
        <time>2018-12-28T00:24:57Z</time>
      </trkpt>
      <trkpt lat="34.560880" lon="-118.679880">
        <ele>755.480</ele>
        <time>2018-12-28T00:25:17Z</time>
      </trkpt>
      <trkpt lat="34.561040" lon="-118.680130">
        <ele>756.584</ele>
        <time>2018-12-28T00:25:37Z</time>
      </trkpt>
      <trkpt lat="34.561240" lon="-118.680450">
        <ele>757.527</ele>
        <time>2018-12-28T00:25:57Z</time>
      </trkpt>
      <trkpt lat="34.561400" lon="-118.680700">
        <ele>758.171</ele>
        <time>2018-12-28T00:26:17Z</time>
      </trkpt>
      <trkpt lat="34.561690" lon="-118.681110">
        <ele>759.994</ele>
        <time>2018-12-28T00:26:37Z</time>
      </trkpt>
      <trkpt lat="34.561970" lon="-118.681580">
        <ele>761.632</ele>
        <time>2018-12-28T00:26:57Z</time>
      </trkpt>
      <trkpt lat="34.562280" lon="-118.682050">
        <ele>764.092</ele>
        <time>2018-12-28T00:27:17Z</time>
      </trkpt>
      <trkpt lat="34.562440" lon="-118.682300">
        <ele>765.411</ele>
        <time>2018-12-28T00:27:37Z</time>
      </trkpt>
      <trkpt lat="34.562600" lon="-118.682540">
        <ele>766.308</ele>
        <time>2018-12-28T00:27:57Z</time>
      </trkpt>
      <trkpt lat="34.562830" lon="-118.682890">
        <ele>767.886</ele>
        <time>2018-12-28T00:28:17Z</time>
      </trkpt>
      <trkpt lat="34.562920" lon="-118.683010">
        <ele>768.454</ele>
        <time>2018-12-28T00:28:37Z</time>
      </trkpt>
      <trkpt lat="34.563000" lon="-118.683120">
        <ele>769.329</ele>
        <time>2018-12-28T00:28:57Z</time>
      </trkpt>
      <trkpt lat="34.563080" lon="-118.683230">
        <ele>769.548</ele>
        <time>2018-12-28T00:29:17Z</time>
      </trkpt>
      <trkpt lat="34.563170" lon="-118.683350">
        <ele>770.362</ele>
        <time>2018-12-28T00:29:37Z</time>
      </trkpt>
      <trkpt lat="34.563310" lon="-118.683540">
        <ele>771.595</ele>
        <time>2018-12-28T00:29:57Z</time>
      </trkpt>
      <trkpt lat="34.563440" lon="-118.683690">
        <ele>772.429</ele>
        <time>2018-12-28T00:30:17Z</time>
      </trkpt>
      <trkpt lat="34.563720" lon="-118.684010">
        <ele>774.532</ele>
        <time>2018-12-28T00:30:37Z</time>
      </trkpt>
      <trkpt lat="34.563990" lon="-118.684270">
        <ele>776.618</ele>
        <time>2018-12-28T00:30:57Z</time>
      </trkpt>
      <trkpt lat="34.564200" lon="-118.684470">
        <ele>778.098</ele>
        <time>2018-12-28T00:31:17Z</time>
      </trkpt>
      <trkpt lat="34.564360" lon="-118.684610">
        <ele>778.417</ele>
        <time>2018-12-28T00:31:37Z</time>
      </trkpt>
      <trkpt lat="34.564610" lon="-118.684820">
        <ele>779.408</ele>
        <time>2018-12-28T00:31:57Z</time>
      </trkpt>
      <trkpt lat="34.564790" lon="-118.684970">
        <ele>779.894</ele>
        <time>2018-12-28T00:32:17Z</time>
      </trkpt>
      <trkpt lat="34.565010" lon="-118.685130">
        <ele>780.732</ele>
        <time>2018-12-28T00:32:37Z</time>
      </trkpt>
      <trkpt lat="34.565280" lon="-118.685310">
        <ele>781.687</ele>
        <time>2018-12-28T00:32:57Z</time>
      </trkpt>
      <trkpt lat="34.565680" lon="-118.685550">
        <ele>782.226</ele>
        <time>2018-12-28T00:33:17Z</time>
      </trkpt>
      <trkpt lat="34.566170" lon="-118.685800">
        <ele>783.280</ele>
        <time>2018-12-28T00:33:37Z</time>
      </trkpt>
      <trkpt lat="34.566910" lon="-118.686170">
        <ele>783.163</ele>
        <time>2018-12-28T00:33:57Z</time>
      </trkpt>
      <trkpt lat="34.567640" lon="-118.686540">
        <ele>783.177</ele>
        <time>2018-12-28T00:34:17Z</time>
      </trkpt>
      <trkpt lat="34.568370" lon="-118.686900">
        <ele>782.570</ele>
        <time>2018-12-28T00:34:37Z</time>
      </trkpt>
      <trkpt lat="34.569030" lon="-118.687300">
        <ele>781.543</ele>
        <time>2018-12-28T00:34:57Z</time>
      </trkpt>
      <trkpt lat="34.569380" lon="-118.687520">
        <ele>780.764</ele>
        <time>2018-12-28T00:35:17Z</time>
      </trkpt>
      <trkpt lat="34.569700" lon="-118.687720">
        <ele>776.310</ele>
        <time>2018-12-28T00:35:37Z</time>
      </trkpt>
      <trkpt lat="34.569750" lon="-118.687760">
        <ele>775.608</ele>
        <time>2018-12-28T00:35:57Z</time>
      </trkpt>
      <trkpt lat="34.570000" lon="-118.687950">
        <ele>779.437</ele>
        <time>2018-12-28T00:36:17Z</time>
      </trkpt>
      <trkpt lat="34.570040" lon="-118.687980">
        <ele>779.895</ele>
        <time>2018-12-28T00:36:37Z</time>
      </trkpt>
      <trkpt lat="34.570250" lon="-118.688170">
        <ele>780.120</ele>
        <time>2018-12-28T00:36:57Z</time>
      </trkpt>
      <trkpt lat="34.570460" lon="-118.688370">
        <ele>780.269</ele>
        <time>2018-12-28T00:37:17Z</time>
      </trkpt>
      <trkpt lat="34.570670" lon="-118.688570">
        <ele>780.813</ele>
        <time>2018-12-28T00:37:37Z</time>
      </trkpt>
      <trkpt lat="34.570870" lon="-118.688790">
        <ele>781.326</ele>
        <time>2018-12-28T00:37:57Z</time>
      </trkpt>
      <trkpt lat="34.571240" lon="-118.689220">
        <ele>782.580</ele>
        <time>2018-12-28T00:38:17Z</time>
      </trkpt>
      <trkpt lat="34.571520" lon="-118.689570">
        <ele>783.573</ele>
        <time>2018-12-28T00:38:37Z</time>
      </trkpt>
      <trkpt lat="34.572120" lon="-118.690480">
        <ele>785.236</ele>
        <time>2018-12-28T00:38:57Z</time>
      </trkpt>
      <trkpt lat="34.572310" lon="-118.690840">
        <ele>786.817</ele>
        <time>2018-12-28T00:39:17Z</time>
      </trkpt>
      <trkpt lat="34.572450" lon="-118.691100">
        <ele>787.018</ele>
        <time>2018-12-28T00:39:37Z</time>
      </trkpt>
      <trkpt lat="34.572580" lon="-118.691380">
        <ele>788.908</ele>
        <time>2018-12-28T00:39:57Z</time>
      </trkpt>
      <trkpt lat="34.572700" lon="-118.691650">
        <ele>789.016</ele>
        <time>2018-12-28T00:40:17Z</time>
      </trkpt>
      <trkpt lat="34.572780" lon="-118.691870">
        <ele>790.424</ele>
        <time>2018-12-28T00:40:37Z</time>
      </trkpt>
      <trkpt lat="34.572850" lon="-118.692040">
        <ele>791.459</ele>
        <time>2018-12-28T00:40:57Z</time>
      </trkpt>
      <trkpt lat="34.572870" lon="-118.692090">
        <ele>791.658</ele>
        <time>2018-12-28T00:41:17Z</time>
      </trkpt>
      <trkpt lat="34.573170" lon="-118.692900">
        <ele>794.962</ele>
        <time>2018-12-28T00:41:37Z</time>
      </trkpt>
      <trkpt lat="34.573330" lon="-118.693340">
        <ele>796.085</ele>
        <time>2018-12-28T00:41:57Z</time>
      </trkpt>
      <trkpt lat="34.573500" lon="-118.693800">
        <ele>798.129</ele>
        <time>2018-12-28T00:42:17Z</time>
      </trkpt>
      <trkpt lat="34.573610" lon="-118.694100">
        <ele>799.342</ele>
        <time>2018-12-28T00:42:37Z</time>
      </trkpt>
      <trkpt lat="34.573810" lon="-118.694660">
        <ele>801.852</ele>
        <time>2018-12-28T00:42:57Z</time>
      </trkpt>
      <trkpt lat="34.573980" lon="-118.695110">
        <ele>804.353</ele>
        <time>2018-12-28T00:43:17Z</time>
      </trkpt>
      <trkpt lat="34.574090" lon="-118.695410">
        <ele>806.508</ele>
        <time>2018-12-28T00:43:37Z</time>
      </trkpt>
      <trkpt lat="34.574200" lon="-118.695720">
        <ele>806.808</ele>
        <time>2018-12-28T00:43:57Z</time>
      </trkpt>
      <trkpt lat="34.574300" lon="-118.696000">
        <ele>808.028</ele>
        <time>2018-12-28T00:44:17Z</time>
      </trkpt>
      <trkpt lat="34.574360" lon="-118.696150">
        <ele>809.426</ele>
        <time>2018-12-28T00:44:37Z</time>
      </trkpt>
      <trkpt lat="34.574510" lon="-118.696560">
        <ele>810.311</ele>
        <time>2018-12-28T00:44:57Z</time>
      </trkpt>
      <trkpt lat="34.574630" lon="-118.696860">
        <ele>812.560</ele>
        <time>2018-12-28T00:45:17Z</time>
      </trkpt>
      <trkpt lat="34.574720" lon="-118.697080">
        <ele>812.534</ele>
        <time>2018-12-28T00:45:37Z</time>
      </trkpt>
      <trkpt lat="34.574810" lon="-118.697280">
        <ele>813.557</ele>
        <time>2018-12-28T00:45:57Z</time>
      </trkpt>
      <trkpt lat="34.574890" lon="-118.697430">
        <ele>814.691</ele>
        <time>2018-12-28T00:46:17Z</time>
      </trkpt>
      <trkpt lat="34.575020" lon="-118.697690">
        <ele>815.684</ele>
        <time>2018-12-28T00:46:37Z</time>
      </trkpt>
      <trkpt lat="34.575140" lon="-118.697920">
        <ele>816.466</ele>
        <time>2018-12-28T00:46:57Z</time>
      </trkpt>
      <trkpt lat="34.575240" lon="-118.698100">
        <ele>817.929</ele>
        <time>2018-12-28T00:47:17Z</time>
      </trkpt>
      <trkpt lat="34.575380" lon="-118.698350">
        <ele>818.521</ele>
        <time>2018-12-28T00:47:37Z</time>
      </trkpt>
      <trkpt lat="34.575560" lon="-118.698620">
        <ele>821.108</ele>
        <time>2018-12-28T00:47:57Z</time>
      </trkpt>
      <trkpt lat="34.575670" lon="-118.698810">
        <ele>820.639</ele>
        <time>2018-12-28T00:48:17Z</time>
      </trkpt>
      <trkpt lat="34.575960" lon="-118.699200">
        <ele>822.887</ele>
        <time>2018-12-28T00:48:37Z</time>
      </trkpt>
      <trkpt lat="34.576140" lon="-118.699430">
        <ele>824.932</ele>
        <time>2018-12-28T00:48:57Z</time>
      </trkpt>
      <trkpt lat="34.576340" lon="-118.699660">
        <ele>826.491</ele>
        <time>2018-12-28T00:49:17Z</time>
      </trkpt>
      <trkpt lat="34.576440" lon="-118.699770">
        <ele>827.065</ele>
        <time>2018-12-28T00:49:37Z</time>
      </trkpt>
      <trkpt lat="34.576820" lon="-118.700180">
        <ele>828.518</ele>
        <time>2018-12-28T00:49:57Z</time>
      </trkpt>
      <trkpt lat="34.576940" lon="-118.700290">
        <ele>830.222</ele>
        <time>2018-12-28T00:50:17Z</time>
      </trkpt>
      <trkpt lat="34.577250" lon="-118.700570">
        <ele>831.965</ele>
        <time>2018-12-28T00:50:37Z</time>
      </trkpt>
      <trkpt lat="34.577460" lon="-118.700740">
        <ele>831.813</ele>
        <time>2018-12-28T00:50:57Z</time>
      </trkpt>
      <trkpt lat="34.578000" lon="-118.701200">
        <ele>835.543</ele>
        <time>2018-12-28T00:51:17Z</time>
      </trkpt>
      <trkpt lat="34.578230" lon="-118.701390">
        <ele>836.707</ele>
        <time>2018-12-28T00:51:37Z</time>
      </trkpt>
      <trkpt lat="34.578670" lon="-118.701760">
        <ele>839.708</ele>
        <time>2018-12-28T00:51:57Z</time>
      </trkpt>
      <trkpt lat="34.579010" lon="-118.702040">
        <ele>840.564</ele>
        <time>2018-12-28T00:52:17Z</time>
      </trkpt>
      <trkpt lat="34.579310" lon="-118.702290">
        <ele>843.362</ele>
        <time>2018-12-28T00:52:37Z</time>
      </trkpt>
      <trkpt lat="34.579640" lon="-118.702570">
        <ele>845.267</ele>
        <time>2018-12-28T00:52:57Z</time>
      </trkpt>
      <trkpt lat="34.579740" lon="-118.702680">
        <ele>845.476</ele>
        <time>2018-12-28T00:53:17Z</time>
      </trkpt>
      <trkpt lat="34.579860" lon="-118.702770">
        <ele>846.070</ele>
        <time>2018-12-28T00:53:37Z</time>
      </trkpt>
      <trkpt lat="34.580050" lon="-118.702970">
        <ele>847.183</ele>
        <time>2018-12-28T00:53:57Z</time>
      </trkpt>
      <trkpt lat="34.580160" lon="-118.703080">
        <ele>847.927</ele>
        <time>2018-12-28T00:54:17Z</time>
      </trkpt>
      <trkpt lat="34.580360" lon="-118.703300">
        <ele>849.110</ele>
        <time>2018-12-28T00:54:37Z</time>
      </trkpt>
      <trkpt lat="34.580460" lon="-118.703420">
        <ele>850.066</ele>
        <time>2018-12-28T00:54:57Z</time>
      </trkpt>
      <trkpt lat="34.580720" lon="-118.703730">
        <ele>852.029</ele>
        <time>2018-12-28T00:55:17Z</time>
      </trkpt>
      <trkpt lat="34.580920" lon="-118.704000">
        <ele>853.221</ele>
        <time>2018-12-28T00:55:37Z</time>
      </trkpt>
      <trkpt lat="34.581330" lon="-118.704580">
        <ele>855.008</ele>
        <time>2018-12-28T00:55:57Z</time>
      </trkpt>
      <trkpt lat="34.581430" lon="-118.704720">
        <ele>855.879</ele>
        <time>2018-12-28T00:56:17Z</time>
      </trkpt>
      <trkpt lat="34.581530" lon="-118.704850">
        <ele>856.837</ele>
        <time>2018-12-28T00:56:37Z</time>
      </trkpt>
      <trkpt lat="34.582360" lon="-118.706030">
        <ele>862.862</ele>
        <time>2018-12-28T00:56:57Z</time>
      </trkpt>
      <trkpt lat="34.583070" lon="-118.707030">
        <ele>868.481</ele>
        <time>2018-12-28T00:57:17Z</time>
      </trkpt>
      <trkpt lat="34.583250" lon="-118.707280">
        <ele>869.195</ele>
        <time>2018-12-28T00:57:37Z</time>
      </trkpt>
      <trkpt lat="34.583850" lon="-118.708120">
        <ele>872.038</ele>
        <time>2018-12-28T00:57:57Z</time>
      </trkpt>
      <trkpt lat="34.584110" lon="-118.708470">
        <ele>872.872</ele>
        <time>2018-12-28T00:58:17Z</time>
      </trkpt>
      <trkpt lat="34.584230" lon="-118.708630">
        <ele>873.155</ele>
        <time>2018-12-28T00:58:37Z</time>
      </trkpt>
      <trkpt lat="34.584570" lon="-118.709020">
        <ele>873.372</ele>
        <time>2018-12-28T00:58:57Z</time>
      </trkpt>
      <trkpt lat="34.584900" lon="-118.709360">
        <ele>873.713</ele>
        <time>2018-12-28T00:59:17Z</time>
      </trkpt>
      <trkpt lat="34.585020" lon="-118.709480">
        <ele>874.014</ele>
        <time>2018-12-28T00:59:37Z</time>
      </trkpt>
      <trkpt lat="34.585200" lon="-118.709650">
        <ele>873.708</ele>
        <time>2018-12-28T00:59:57Z</time>
      </trkpt>
      <trkpt lat="34.585340" lon="-118.709770">
        <ele>873.910</ele>
        <time>2018-12-28T01:00:17Z</time>
      </trkpt>
      <trkpt lat="34.585500" lon="-118.709910">
        <ele>873.368</ele>
        <time>2018-12-28T01:00:37Z</time>
      </trkpt>
      <trkpt lat="34.585680" lon="-118.710050">
        <ele>873.223</ele>
        <time>2018-12-28T01:00:57Z</time>
      </trkpt>
      <trkpt lat="34.585810" lon="-118.710150">
        <ele>872.812</ele>
        <time>2018-12-28T01:01:17Z</time>
      </trkpt>
      <trkpt lat="34.586020" lon="-118.710300">
        <ele>872.926</ele>
        <time>2018-12-28T01:01:37Z</time>
      </trkpt>
      <trkpt lat="34.586200" lon="-118.710420">
        <ele>872.559</ele>
        <time>2018-12-28T01:01:57Z</time>
      </trkpt>
      <trkpt lat="34.586410" lon="-118.710560">
        <ele>873.073</ele>
        <time>2018-12-28T01:02:17Z</time>
      </trkpt>
      <trkpt lat="34.586640" lon="-118.710690">
        <ele>872.476</ele>
        <time>2018-12-28T01:02:37Z</time>
      </trkpt>
      <trkpt lat="34.586910" lon="-118.710830">
        <ele>872.677</ele>
        <time>2018-12-28T01:02:57Z</time>
      </trkpt>
      <trkpt lat="34.587150" lon="-118.710940">
        <ele>872.561</ele>
        <time>2018-12-28T01:03:17Z</time>
      </trkpt>
      <trkpt lat="34.587390" lon="-118.711050">
        <ele>871.827</ele>
        <time>2018-12-28T01:03:37Z</time>
      </trkpt>
      <trkpt lat="34.587890" lon="-118.711240">
        <ele>871.508</ele>
        <time>2018-12-28T01:03:57Z</time>
      </trkpt>
      <trkpt lat="34.588050" lon="-118.711280">
        <ele>871.380</ele>
        <time>2018-12-28T01:04:17Z</time>
      </trkpt>
      <trkpt lat="34.588400" lon="-118.711390">
        <ele>870.878</ele>
        <time>2018-12-28T01:04:37Z</time>
      </trkpt>
      <trkpt lat="34.588670" lon="-118.711450">
        <ele>870.213</ele>
        <time>2018-12-28T01:04:57Z</time>
      </trkpt>
      <trkpt lat="34.588940" lon="-118.711490">
        <ele>870.352</ele>
        <time>2018-12-28T01:05:17Z</time>
      </trkpt>
      <trkpt lat="34.589070" lon="-118.711510">
        <ele>870.576</ele>
        <time>2018-12-28T01:05:37Z</time>
      </trkpt>
      <trkpt lat="34.589200" lon="-118.711530">
        <ele>870.619</ele>
        <time>2018-12-28T01:05:57Z</time>
      </trkpt>
      <trkpt lat="34.589460" lon="-118.711560">
        <ele>870.473</ele>
        <time>2018-12-28T01:06:17Z</time>
      </trkpt>
      <trkpt lat="34.589670" lon="-118.711580">
        <ele>870.346</ele>
        <time>2018-12-28T01:06:37Z</time>
      </trkpt>
      <trkpt lat="34.589880" lon="-118.711590">
        <ele>870.243</ele>
        <time>2018-12-28T01:06:57Z</time>
      </trkpt>
      <trkpt lat="34.590680" lon="-118.711640">
        <ele>869.464</ele>
        <time>2018-12-28T01:07:17Z</time>
      </trkpt>
      <trkpt lat="34.590910" lon="-118.711660">
        <ele>869.210</ele>
        <time>2018-12-28T01:07:37Z</time>
      </trkpt>
      <trkpt lat="34.591370" lon="-118.711660">
        <ele>868.908</ele>
        <time>2018-12-28T01:07:57Z</time>
      </trkpt>
      <trkpt lat="34.591580" lon="-118.711650">
        <ele>868.777</ele>
        <time>2018-12-28T01:08:17Z</time>
      </trkpt>
      <trkpt lat="34.591820" lon="-118.711640">
        <ele>868.625</ele>
        <time>2018-12-28T01:08:37Z</time>
      </trkpt>
      <trkpt lat="34.592100" lon="-118.711610">
        <ele>868.750</ele>
        <time>2018-12-28T01:08:57Z</time>
      </trkpt>
      <trkpt lat="34.592500" lon="-118.711580">
        <ele>868.659</ele>
        <time>2018-12-28T01:09:17Z</time>
      </trkpt>
      <trkpt lat="34.592900" lon="-118.711530">
        <ele>868.533</ele>
        <time>2018-12-28T01:09:37Z</time>
      </trkpt>
      <trkpt lat="34.593200" lon="-118.711500">
        <ele>867.916</ele>
        <time>2018-12-28T01:09:57Z</time>
      </trkpt>
      <trkpt lat="34.593550" lon="-118.711460">
        <ele>867.470</ele>
        <time>2018-12-28T01:10:17Z</time>
      </trkpt>
      <trkpt lat="34.594100" lon="-118.711410">
        <ele>867.873</ele>
        <time>2018-12-28T01:10:37Z</time>
      </trkpt>
      <trkpt lat="34.594470" lon="-118.711370">
        <ele>868.878</ele>
        <time>2018-12-28T01:10:57Z</time>
      </trkpt>
      <trkpt lat="34.595030" lon="-118.711310">
        <ele>868.333</ele>
        <time>2018-12-28T01:11:17Z</time>
      </trkpt>
      <trkpt lat="34.595870" lon="-118.711220">
        <ele>867.426</ele>
        <time>2018-12-28T01:11:37Z</time>
      </trkpt>
      <trkpt lat="34.596220" lon="-118.711190">
        <ele>867.408</ele>
        <time>2018-12-28T01:11:57Z</time>
      </trkpt>
      <trkpt lat="34.596830" lon="-118.711130">
        <ele>867.280</ele>
        <time>2018-12-28T01:12:17Z</time>
      </trkpt>
      <trkpt lat="34.597670" lon="-118.711040">
        <ele>864.888</ele>
        <time>2018-12-28T01:12:37Z</time>
      </trkpt>
      <trkpt lat="34.598450" lon="-118.710960">
        <ele>865.553</ele>
        <time>2018-12-28T01:12:57Z</time>
      </trkpt>
      <trkpt lat="34.599080" lon="-118.710890">
        <ele>866.022</ele>
        <time>2018-12-28T01:13:17Z</time>
      </trkpt>
      <trkpt lat="34.599470" lon="-118.710860">
        <ele>864.826</ele>
        <time>2018-12-28T01:13:37Z</time>
      </trkpt>
      <trkpt lat="34.599890" lon="-118.710820">
        <ele>863.799</ele>
        <time>2018-12-28T01:13:57Z</time>
      </trkpt>
      <trkpt lat="34.600060" lon="-118.710800">
        <ele>863.673</ele>
        <time>2018-12-28T01:14:17Z</time>
      </trkpt>
      <trkpt lat="34.600180" lon="-118.710800">
        <ele>863.536</ele>
        <time>2018-12-28T01:14:37Z</time>
      </trkpt>
      <trkpt lat="34.600350" lon="-118.710790">
        <ele>863.439</ele>
        <time>2018-12-28T01:14:57Z</time>
      </trkpt>
      <trkpt lat="34.600670" lon="-118.710790">
        <ele>863.101</ele>
        <time>2018-12-28T01:15:17Z</time>
      </trkpt>
      <trkpt lat="34.600940" lon="-118.710810">
        <ele>863.021</ele>
        <time>2018-12-28T01:15:37Z</time>
      </trkpt>
      <trkpt lat="34.601250" lon="-118.710830">
        <ele>863.308</ele>
        <time>2018-12-28T01:15:57Z</time>
      </trkpt>
      <trkpt lat="34.601740" lon="-118.710910">
        <ele>864.396</ele>
        <time>2018-12-28T01:16:17Z</time>
      </trkpt>
      <trkpt lat="34.602020" lon="-118.710960">
        <ele>863.624</ele>
        <time>2018-12-28T01:16:37Z</time>
      </trkpt>
      <trkpt lat="34.602800" lon="-118.711130">
        <ele>863.159</ele>
        <time>2018-12-28T01:16:57Z</time>
      </trkpt>
      <trkpt lat="34.603730" lon="-118.711330">
        <ele>862.048</ele>
        <time>2018-12-28T01:17:17Z</time>
      </trkpt>
      <trkpt lat="34.604520" lon="-118.711500">
        <ele>860.392</ele>
        <time>2018-12-28T01:17:37Z</time>
      </trkpt>
      <trkpt lat="34.604900" lon="-118.711580">
        <ele>858.445</ele>
        <time>2018-12-28T01:17:57Z</time>
      </trkpt>
      <trkpt lat="34.605280" lon="-118.711650">
        <ele>856.739</ele>
        <time>2018-12-28T01:18:17Z</time>
      </trkpt>
      <trkpt lat="34.605450" lon="-118.711680">
        <ele>856.782</ele>
        <time>2018-12-28T01:18:37Z</time>
      </trkpt>
      <trkpt lat="34.605700" lon="-118.711710">
        <ele>856.824</ele>
        <time>2018-12-28T01:18:57Z</time>
      </trkpt>
      <trkpt lat="34.606100" lon="-118.711750">
        <ele>855.704</ele>
        <time>2018-12-28T01:19:17Z</time>
      </trkpt>
      <trkpt lat="34.606270" lon="-118.711760">
        <ele>855.214</ele>
        <time>2018-12-28T01:19:37Z</time>
      </trkpt>
      <trkpt lat="34.606470" lon="-118.711760">
        <ele>854.608</ele>
        <time>2018-12-28T01:19:57Z</time>
      </trkpt>
      <trkpt lat="34.606720" lon="-118.711760">
        <ele>853.895</ele>
        <time>2018-12-28T01:20:17Z</time>
      </trkpt>
      <trkpt lat="34.607890" lon="-118.711770">
        <ele>849.373</ele>
        <time>2018-12-28T01:20:37Z</time>
      </trkpt>
      <trkpt lat="34.608160" lon="-118.711770">
        <ele>848.488</ele>
        <time>2018-12-28T01:20:57Z</time>
      </trkpt>
      <trkpt lat="34.608850" lon="-118.711780">
        <ele>847.347</ele>
        <time>2018-12-28T01:21:17Z</time>
      </trkpt>
      <trkpt lat="34.609470" lon="-118.711780">
        <ele>845.781</ele>
        <time>2018-12-28T01:21:37Z</time>
      </trkpt>
      <trkpt lat="34.609630" lon="-118.711790">
        <ele>845.294</ele>
        <time>2018-12-28T01:21:57Z</time>
      </trkpt>
      <trkpt lat="34.609770" lon="-118.711790">
        <ele>844.898</ele>
        <time>2018-12-28T01:22:17Z</time>
      </trkpt>
      <trkpt lat="34.609910" lon="-118.711800">
        <ele>844.371</ele>
        <time>2018-12-28T01:22:37Z</time>
      </trkpt>
      <trkpt lat="34.610090" lon="-118.711820">
        <ele>844.054</ele>
        <time>2018-12-28T01:22:57Z</time>
      </trkpt>
      <trkpt lat="34.610290" lon="-118.711840">
        <ele>843.756</ele>
        <time>2018-12-28T01:23:17Z</time>
      </trkpt>
      <trkpt lat="34.610580" lon="-118.711880">
        <ele>842.811</ele>
        <time>2018-12-28T01:23:37Z</time>
      </trkpt>
      <trkpt lat="34.610750" lon="-118.711910">
        <ele>841.908</ele>
        <time>2018-12-28T01:23:57Z</time>
      </trkpt>
      <trkpt lat="34.610940" lon="-118.711950">
        <ele>841.268</ele>
        <time>2018-12-28T01:24:17Z</time>
      </trkpt>
      <trkpt lat="34.611230" lon="-118.712010">
        <ele>839.616</ele>
        <time>2018-12-28T01:24:37Z</time>
      </trkpt>
      <trkpt lat="34.611540" lon="-118.712100">
        <ele>839.261</ele>
        <time>2018-12-28T01:24:57Z</time>
      </trkpt>
      <trkpt lat="34.611740" lon="-118.712170">
        <ele>838.760</ele>
        <time>2018-12-28T01:25:17Z</time>
      </trkpt>
      <trkpt lat="34.612030" lon="-118.712270">
        <ele>837.524</ele>
        <time>2018-12-28T01:25:37Z</time>
      </trkpt>
      <trkpt lat="34.612130" lon="-118.712310">
        <ele>837.187</ele>
        <time>2018-12-28T01:25:57Z</time>
      </trkpt>
      <trkpt lat="34.612520" lon="-118.712480">
        <ele>836.541</ele>
        <time>2018-12-28T01:26:17Z</time>
      </trkpt>
      <trkpt lat="34.612780" lon="-118.712610">
        <ele>835.524</ele>
        <time>2018-12-28T01:26:37Z</time>
      </trkpt>
      <trkpt lat="34.613490" lon="-118.713000">
        <ele>834.088</ele>
        <time>2018-12-28T01:26:57Z</time>
      </trkpt>
      <trkpt lat="34.614950" lon="-118.713810">
        <ele>831.424</ele>
        <time>2018-12-28T01:27:17Z</time>
      </trkpt>
      <trkpt lat="34.615130" lon="-118.713910">
        <ele>830.926</ele>
        <time>2018-12-28T01:27:37Z</time>
      </trkpt>
      <trkpt lat="34.615690" lon="-118.714210">
        <ele>830.408</ele>
        <time>2018-12-28T01:27:57Z</time>
      </trkpt>
      <trkpt lat="34.616400" lon="-118.714610">
        <ele>829.191</ele>
        <time>2018-12-28T01:28:17Z</time>
      </trkpt>
      <trkpt lat="34.616750" lon="-118.714800">
        <ele>829.439</ele>
        <time>2018-12-28T01:28:37Z</time>
      </trkpt>
      <trkpt lat="34.617240" lon="-118.715070">
        <ele>828.364</ele>
        <time>2018-12-28T01:28:57Z</time>
      </trkpt>
      <trkpt lat="34.617730" lon="-118.715330">
        <ele>827.583</ele>
        <time>2018-12-28T01:29:17Z</time>
      </trkpt>
      <trkpt lat="34.618360" lon="-118.715680">
        <ele>826.167</ele>
        <time>2018-12-28T01:29:37Z</time>
      </trkpt>
      <trkpt lat="34.619570" lon="-118.716350">
        <ele>823.890</ele>
        <time>2018-12-28T01:29:57Z</time>
      </trkpt>
      <trkpt lat="34.620150" lon="-118.716670">
        <ele>823.594</ele>
        <time>2018-12-28T01:30:17Z</time>
      </trkpt>
      <trkpt lat="34.622390" lon="-118.717910">
        <ele>831.637</ele>
        <time>2018-12-28T01:30:37Z</time>
      </trkpt>
      <trkpt lat="34.622650" lon="-118.718060">
        <ele>833.042</ele>
        <time>2018-12-28T01:30:57Z</time>
      </trkpt>
      <trkpt lat="34.623040" lon="-118.718270">
        <ele>835.222</ele>
        <time>2018-12-28T01:31:17Z</time>
      </trkpt>
      <trkpt lat="34.623340" lon="-118.718460">
        <ele>836.614</ele>
        <time>2018-12-28T01:31:37Z</time>
      </trkpt>
      <trkpt lat="34.623470" lon="-118.718540">
        <ele>837.708</ele>
        <time>2018-12-28T01:31:57Z</time>
      </trkpt>
      <trkpt lat="34.623600" lon="-118.718630">
        <ele>837.847</ele>
        <time>2018-12-28T01:32:17Z</time>
      </trkpt>
      <trkpt lat="34.623940" lon="-118.718870">
        <ele>840.325</ele>
        <time>2018-12-28T01:32:37Z</time>
      </trkpt>
      <trkpt lat="34.624060" lon="-118.718960">
        <ele>840.770</ele>
        <time>2018-12-28T01:32:57Z</time>
      </trkpt>
      <trkpt lat="34.624270" lon="-118.719130">
        <ele>842.479</ele>
        <time>2018-12-28T01:33:17Z</time>
      </trkpt>
      <trkpt lat="34.624490" lon="-118.719310">
        <ele>843.993</ele>
        <time>2018-12-28T01:33:37Z</time>
      </trkpt>
      <trkpt lat="34.624720" lon="-118.719510">
        <ele>844.766</ele>
        <time>2018-12-28T01:33:57Z</time>
      </trkpt>
      <trkpt lat="34.625020" lon="-118.719790">
        <ele>847.730</ele>
        <time>2018-12-28T01:34:17Z</time>
      </trkpt>
      <trkpt lat="34.625240" lon="-118.720010">
        <ele>849.793</ele>
        <time>2018-12-28T01:34:37Z</time>
      </trkpt>
      <trkpt lat="34.625340" lon="-118.720110">
        <ele>849.886</ele>
        <time>2018-12-28T01:34:57Z</time>
      </trkpt>
      <trkpt lat="34.625450" lon="-118.720220">
        <ele>850.060</ele>
        <time>2018-12-28T01:35:17Z</time>
      </trkpt>
      <trkpt lat="34.625640" lon="-118.720430">
        <ele>851.526</ele>
        <time>2018-12-28T01:35:37Z</time>
      </trkpt>
      <trkpt lat="34.625820" lon="-118.720640">
        <ele>852.208</ele>
        <time>2018-12-28T01:35:57Z</time>
      </trkpt>
      <trkpt lat="34.625920" lon="-118.720750">
        <ele>853.361</ele>
        <time>2018-12-28T01:36:17Z</time>
      </trkpt>
      <trkpt lat="34.626110" lon="-118.720980">
        <ele>854.639</ele>
        <time>2018-12-28T01:36:37Z</time>
      </trkpt>
      <trkpt lat="34.626200" lon="-118.721100">
        <ele>855.474</ele>
        <time>2018-12-28T01:36:57Z</time>
      </trkpt>
      <trkpt lat="34.626560" lon="-118.721590">
        <ele>858.573</ele>
        <time>2018-12-28T01:37:17Z</time>
      </trkpt>
      <trkpt lat="34.626640" lon="-118.721700">
        <ele>859.577</ele>
        <time>2018-12-28T01:37:37Z</time>
      </trkpt>
      <trkpt lat="34.626820" lon="-118.721960">
        <ele>860.040</ele>
        <time>2018-12-28T01:37:57Z</time>
      </trkpt>
      <trkpt lat="34.626890" lon="-118.722070">
        <ele>860.794</ele>
        <time>2018-12-28T01:38:17Z</time>
      </trkpt>
      <trkpt lat="34.627060" lon="-118.722340">
        <ele>861.547</ele>
        <time>2018-12-28T01:38:37Z</time>
      </trkpt>
      <trkpt lat="34.627280" lon="-118.722710">
        <ele>862.242</ele>
        <time>2018-12-28T01:38:57Z</time>
      </trkpt>
      <trkpt lat="34.627440" lon="-118.722980">
        <ele>863.722</ele>
        <time>2018-12-28T01:39:17Z</time>
      </trkpt>
      <trkpt lat="34.627680" lon="-118.723380">
        <ele>863.714</ele>
        <time>2018-12-28T01:39:37Z</time>
      </trkpt>
      <trkpt lat="34.628000" lon="-118.723870">
        <ele>864.808</ele>
        <time>2018-12-28T01:39:57Z</time>
      </trkpt>
      <trkpt lat="34.628070" lon="-118.723990">
        <ele>864.327</ele>
        <time>2018-12-28T01:40:17Z</time>
      </trkpt>
      <trkpt lat="34.628150" lon="-118.724100">
        <ele>863.875</ele>
        <time>2018-12-28T01:40:37Z</time>
      </trkpt>
      <trkpt lat="34.628200" lon="-118.724160">
        <ele>863.920</ele>
        <time>2018-12-28T01:40:57Z</time>
      </trkpt>
      <trkpt lat="34.628270" lon="-118.724260">
        <ele>864.249</ele>
        <time>2018-12-28T01:41:17Z</time>
      </trkpt>
      <trkpt lat="34.628470" lon="-118.724500">
        <ele>864.223</ele>
        <time>2018-12-28T01:41:37Z</time>
      </trkpt>
      <trkpt lat="34.628620" lon="-118.724700">
        <ele>864.546</ele>
        <time>2018-12-28T01:41:57Z</time>
      </trkpt>
      <trkpt lat="34.628920" lon="-118.725040">
        <ele>864.060</ele>
        <time>2018-12-28T01:42:17Z</time>
      </trkpt>
      <trkpt lat="34.629040" lon="-118.725160">
        <ele>863.273</ele>
        <time>2018-12-28T01:42:37Z</time>
      </trkpt>
      <trkpt lat="34.629360" lon="-118.725470">
        <ele>862.685</ele>
        <time>2018-12-28T01:42:57Z</time>
      </trkpt>
      <trkpt lat="34.629680" lon="-118.725750">
        <ele>861.389</ele>
        <time>2018-12-28T01:43:17Z</time>
      </trkpt>
      <trkpt lat="34.629800" lon="-118.725850">
        <ele>860.917</ele>
        <time>2018-12-28T01:43:37Z</time>
      </trkpt>
      <trkpt lat="34.630040" lon="-118.726040">
        <ele>859.408</ele>
        <time>2018-12-28T01:43:57Z</time>
      </trkpt>
      <trkpt lat="34.630370" lon="-118.726310">
        <ele>857.871</ele>
        <time>2018-12-28T01:44:17Z</time>
      </trkpt>
      <trkpt lat="34.631150" lon="-118.726930">
        <ele>853.199</ele>
        <time>2018-12-28T01:44:37Z</time>
      </trkpt>
      <trkpt lat="34.631470" lon="-118.727190">
        <ele>851.554</ele>
        <time>2018-12-28T01:44:57Z</time>
      </trkpt>
      <trkpt lat="34.631590" lon="-118.727300">
        <ele>850.133</ele>
        <time>2018-12-28T01:45:17Z</time>
      </trkpt>
      <trkpt lat="34.631690" lon="-118.727390">
        <ele>850.077</ele>
        <time>2018-12-28T01:45:37Z</time>
      </trkpt>
      <trkpt lat="34.631800" lon="-118.727490">
        <ele>849.490</ele>
        <time>2018-12-28T01:45:57Z</time>
      </trkpt>
      <trkpt lat="34.632010" lon="-118.727700">
        <ele>848.214</ele>
        <time>2018-12-28T01:46:17Z</time>
      </trkpt>
      <trkpt lat="34.632210" lon="-118.727910">
        <ele>847.257</ele>
        <time>2018-12-28T01:46:37Z</time>
      </trkpt>
      <trkpt lat="34.632360" lon="-118.728080">
        <ele>846.412</ele>
        <time>2018-12-28T01:46:57Z</time>
      </trkpt>
      <trkpt lat="34.632460" lon="-118.728200">
        <ele>845.932</ele>
        <time>2018-12-28T01:47:17Z</time>
      </trkpt>
      <trkpt lat="34.632580" lon="-118.728350">
        <ele>845.405</ele>
        <time>2018-12-28T01:47:37Z</time>
      </trkpt>
      <trkpt lat="34.632680" lon="-118.728460">
        <ele>844.608</ele>
        <time>2018-12-28T01:47:57Z</time>
      </trkpt>
      <trkpt lat="34.632770" lon="-118.728580">
        <ele>843.984</ele>
        <time>2018-12-28T01:48:17Z</time>
      </trkpt>
      <trkpt lat="34.632940" lon="-118.728820">
        <ele>843.992</ele>
        <time>2018-12-28T01:48:37Z</time>
      </trkpt>
      <trkpt lat="34.633120" lon="-118.729080">
        <ele>844.027</ele>
        <time>2018-12-28T01:48:57Z</time>
      </trkpt>
      <trkpt lat="34.633200" lon="-118.729210">
        <ele>843.646</ele>
        <time>2018-12-28T01:49:17Z</time>
      </trkpt>
      <trkpt lat="34.633300" lon="-118.729360">
        <ele>842.920</ele>
        <time>2018-12-28T01:49:37Z</time>
      </trkpt>
      <trkpt lat="34.633510" lon="-118.729730">
        <ele>843.253</ele>
        <time>2018-12-28T01:49:57Z</time>
      </trkpt>
      <trkpt lat="34.633650" lon="-118.729990">
        <ele>844.257</ele>
        <time>2018-12-28T01:50:17Z</time>
      </trkpt>
      <trkpt lat="34.633800" lon="-118.730290">
        <ele>844.660</ele>
        <time>2018-12-28T01:50:37Z</time>
      </trkpt>
      <trkpt lat="34.633970" lon="-118.730640">
        <ele>846.278</ele>
        <time>2018-12-28T01:50:57Z</time>
      </trkpt>
      <trkpt lat="34.634050" lon="-118.730830">
        <ele>847.233</ele>
        <time>2018-12-28T01:51:17Z</time>
      </trkpt>
      <trkpt lat="34.634160" lon="-118.731120">
        <ele>847.826</ele>
        <time>2018-12-28T01:51:37Z</time>
      </trkpt>
      <trkpt lat="34.634290" lon="-118.731470">
        <ele>849.308</ele>
        <time>2018-12-28T01:51:57Z</time>
      </trkpt>
      <trkpt lat="34.634380" lon="-118.731740">
        <ele>849.390</ele>
        <time>2018-12-28T01:52:17Z</time>
      </trkpt>
      <trkpt lat="34.634490" lon="-118.732060">
        <ele>851.998</ele>
        <time>2018-12-28T01:52:37Z</time>
      </trkpt>
      <trkpt lat="34.634590" lon="-118.732460">
        <ele>853.273</ele>
        <time>2018-12-28T01:52:57Z</time>
      </trkpt>
      <trkpt lat="34.634660" lon="-118.732720">
        <ele>853.162</ele>
        <time>2018-12-28T01:53:17Z</time>
      </trkpt>
      <trkpt lat="34.634690" lon="-118.732880">
        <ele>853.986</ele>
        <time>2018-12-28T01:53:37Z</time>
      </trkpt>
      <trkpt lat="34.634730" lon="-118.733050">
        <ele>855.429</ele>
        <time>2018-12-28T01:53:57Z</time>
      </trkpt>
      <trkpt lat="34.634770" lon="-118.733280">
        <ele>857.363</ele>
        <time>2018-12-28T01:54:17Z</time>
      </trkpt>
      <trkpt lat="34.634800" lon="-118.733430">
        <ele>857.876</ele>
        <time>2018-12-28T01:54:37Z</time>
      </trkpt>
      <trkpt lat="34.634820" lon="-118.733560">
        <ele>858.331</ele>
        <time>2018-12-28T01:54:57Z</time>
      </trkpt>
      <trkpt lat="34.634840" lon="-118.733740">
        <ele>859.161</ele>
        <time>2018-12-28T01:55:17Z</time>
      </trkpt>
      <trkpt lat="34.634870" lon="-118.733920">
        <ele>859.707</ele>
        <time>2018-12-28T01:55:37Z</time>
      </trkpt>
      <trkpt lat="34.634900" lon="-118.734210">
        <ele>860.508</ele>
        <time>2018-12-28T01:55:57Z</time>
      </trkpt>
      <trkpt lat="34.634910" lon="-118.734370">
        <ele>861.596</ele>
        <time>2018-12-28T01:56:17Z</time>
      </trkpt>
      <trkpt lat="34.634940" lon="-118.734790">
        <ele>864.424</ele>
        <time>2018-12-28T01:56:37Z</time>
      </trkpt>
      <trkpt lat="34.634970" lon="-118.735480">
        <ele>867.529</ele>
        <time>2018-12-28T01:56:57Z</time>
      </trkpt>
      <trkpt lat="34.635000" lon="-118.736410">
        <ele>870.788</ele>
        <time>2018-12-28T01:57:17Z</time>
      </trkpt>
      <trkpt lat="34.635010" lon="-118.736820">
        <ele>871.922</ele>
        <time>2018-12-28T01:57:37Z</time>
      </trkpt>
      <trkpt lat="34.635020" lon="-118.736980">
        <ele>872.525</ele>
        <time>2018-12-28T01:57:57Z</time>
      </trkpt>
      <trkpt lat="34.635030" lon="-118.737150">
        <ele>873.129</ele>
        <time>2018-12-28T01:58:17Z</time>
      </trkpt>
      <trkpt lat="34.635060" lon="-118.737470">
        <ele>874.342</ele>
        <time>2018-12-28T01:58:37Z</time>
      </trkpt>
      <trkpt lat="34.635090" lon="-118.737730">
        <ele>875.563</ele>
        <time>2018-12-28T01:58:57Z</time>
      </trkpt>
      <trkpt lat="34.635130" lon="-118.737970">
        <ele>876.644</ele>
        <time>2018-12-28T01:59:17Z</time>
      </trkpt>
      <trkpt lat="34.635190" lon="-118.738310">
        <ele>878.418</ele>
        <time>2018-12-28T01:59:37Z</time>
      </trkpt>
      <trkpt lat="34.635260" lon="-118.738670">
        <ele>879.208</ele>
        <time>2018-12-28T01:59:57Z</time>
      </trkpt>
      <trkpt lat="34.635340" lon="-118.739000">
        <ele>880.689</ele>
        <time>2018-12-28T02:00:17Z</time>
      </trkpt>
      <trkpt lat="34.635410" lon="-118.739290">
        <ele>882.067</ele>
        <time>2018-12-28T02:00:37Z</time>
      </trkpt>
      <trkpt lat="34.635470" lon="-118.739530">
        <ele>883.262</ele>
        <time>2018-12-28T02:00:57Z</time>
      </trkpt>
      <trkpt lat="34.635580" lon="-118.739860">
        <ele>884.721</ele>
        <time>2018-12-28T02:01:17Z</time>
      </trkpt>
      <trkpt lat="34.635660" lon="-118.740090">
        <ele>885.895</ele>
        <time>2018-12-28T02:01:37Z</time>
      </trkpt>
      <trkpt lat="34.635750" lon="-118.740340">
        <ele>887.878</ele>
        <time>2018-12-28T02:01:57Z</time>
      </trkpt>
      <trkpt lat="34.635850" lon="-118.740590">
        <ele>888.862</ele>
        <time>2018-12-28T02:02:17Z</time>
      </trkpt>
      <trkpt lat="34.635910" lon="-118.740740">
        <ele>888.585</ele>
        <time>2018-12-28T02:02:37Z</time>
      </trkpt>
      <trkpt lat="34.636020" lon="-118.740980">
        <ele>890.729</ele>
        <time>2018-12-28T02:02:57Z</time>
      </trkpt>
      <trkpt lat="34.636110" lon="-118.741190">
        <ele>890.700</ele>
        <time>2018-12-28T02:03:17Z</time>
      </trkpt>
      <trkpt lat="34.636200" lon="-118.741360">
        <ele>890.720</ele>
        <time>2018-12-28T02:03:37Z</time>
      </trkpt>
      <trkpt lat="34.636680" lon="-118.742270">
        <ele>893.708</ele>
        <time>2018-12-28T02:03:57Z</time>
      </trkpt>
      <trkpt lat="34.637210" lon="-118.743240">
        <ele>894.525</ele>
        <time>2018-12-28T02:04:17Z</time>
      </trkpt>
      <trkpt lat="34.637550" lon="-118.743870">
        <ele>894.213</ele>
        <time>2018-12-28T02:04:37Z</time>
      </trkpt>
      <trkpt lat="34.638080" lon="-118.744830">
        <ele>893.418</ele>
        <time>2018-12-28T02:04:57Z</time>
      </trkpt>
      <trkpt lat="34.638320" lon="-118.745260">
        <ele>893.247</ele>
        <time>2018-12-28T02:05:17Z</time>
      </trkpt>
      <trkpt lat="34.638600" lon="-118.745770">
        <ele>891.811</ele>
        <time>2018-12-28T02:05:37Z</time>
      </trkpt>
      <trkpt lat="34.638880" lon="-118.746300">
        <ele>890.174</ele>
        <time>2018-12-28T02:05:57Z</time>
      </trkpt>
      <trkpt lat="34.639210" lon="-118.746880">
        <ele>888.228</ele>
        <time>2018-12-28T02:06:17Z</time>
      </trkpt>
      <trkpt lat="34.639340" lon="-118.747090">
        <ele>888.491</ele>
        <time>2018-12-28T02:06:37Z</time>
      </trkpt>
      <trkpt lat="34.639450" lon="-118.747260">
        <ele>888.263</ele>
        <time>2018-12-28T02:06:57Z</time>
      </trkpt>
      <trkpt lat="34.639650" lon="-118.747560">
        <ele>886.744</ele>
        <time>2018-12-28T02:07:17Z</time>
      </trkpt>
      <trkpt lat="34.639790" lon="-118.747750">
        <ele>886.218</ele>
        <time>2018-12-28T02:07:37Z</time>
      </trkpt>
      <trkpt lat="34.639880" lon="-118.747870">
        <ele>886.408</ele>
        <time>2018-12-28T02:07:57Z</time>
      </trkpt>
      <trkpt lat="34.640120" lon="-118.748160">
        <ele>886.049</ele>
        <time>2018-12-28T02:08:17Z</time>
      </trkpt>
      <trkpt lat="34.640410" lon="-118.748480">
        <ele>885.367</ele>
        <time>2018-12-28T02:08:37Z</time>
      </trkpt>
      <trkpt lat="34.640560" lon="-118.748630">
        <ele>885.372</ele>
        <time>2018-12-28T02:08:57Z</time>
      </trkpt>
      <trkpt lat="34.640830" lon="-118.748890">
        <ele>884.851</ele>
        <time>2018-12-28T02:09:17Z</time>
      </trkpt>
      <trkpt lat="34.641080" lon="-118.749130">
        <ele>884.645</ele>
        <time>2018-12-28T02:09:37Z</time>
      </trkpt>
      <trkpt lat="34.641300" lon="-118.749300">
        <ele>885.218</ele>
        <time>2018-12-28T02:09:57Z</time>
      </trkpt>
      <trkpt lat="34.641410" lon="-118.749390">
        <ele>885.292</ele>
        <time>2018-12-28T02:10:17Z</time>
      </trkpt>
      <trkpt lat="34.641550" lon="-118.749500">
        <ele>885.115</ele>
        <time>2018-12-28T02:10:37Z</time>
      </trkpt>
      <trkpt lat="34.641740" lon="-118.749640">
        <ele>885.482</ele>
        <time>2018-12-28T02:10:57Z</time>
      </trkpt>
      <trkpt lat="34.641960" lon="-118.749800">
        <ele>885.043</ele>
        <time>2018-12-28T02:11:17Z</time>
      </trkpt>
      <trkpt lat="34.642190" lon="-118.749940">
        <ele>885.817</ele>
        <time>2018-12-28T02:11:37Z</time>
      </trkpt>
      <trkpt lat="34.642320" lon="-118.750010">
        <ele>885.808</ele>
        <time>2018-12-28T02:11:57Z</time>
      </trkpt>
      <trkpt lat="34.642560" lon="-118.750140">
        <ele>886.171</ele>
        <time>2018-12-28T02:12:17Z</time>
      </trkpt>
      <trkpt lat="34.642730" lon="-118.750230">
        <ele>886.239</ele>
        <time>2018-12-28T02:12:37Z</time>
      </trkpt>
      <trkpt lat="34.643060" lon="-118.750380">
        <ele>886.384</ele>
        <time>2018-12-28T02:12:57Z</time>
      </trkpt>
      <trkpt lat="34.643160" lon="-118.750430">
        <ele>886.823</ele>
        <time>2018-12-28T02:13:17Z</time>
      </trkpt>
      <trkpt lat="34.643690" lon="-118.750650">
        <ele>887.117</ele>
        <time>2018-12-28T02:13:37Z</time>
      </trkpt>
      <trkpt lat="34.644280" lon="-118.750910">
        <ele>887.530</ele>
        <time>2018-12-28T02:13:57Z</time>
      </trkpt>
      <trkpt lat="34.644850" lon="-118.751160">
        <ele>888.234</ele>
        <time>2018-12-28T02:14:17Z</time>
      </trkpt>
      <trkpt lat="34.645040" lon="-118.751240">
        <ele>887.977</ele>
        <time>2018-12-28T02:14:37Z</time>
      </trkpt>
      <trkpt lat="34.645390" lon="-118.751410">
        <ele>888.168</ele>
        <time>2018-12-28T02:14:57Z</time>
      </trkpt>
      <trkpt lat="34.645650" lon="-118.751520">
        <ele>888.242</ele>
        <time>2018-12-28T02:15:17Z</time>
      </trkpt>
      <trkpt lat="34.646030" lon="-118.751680">
        <ele>888.226</ele>
        <time>2018-12-28T02:15:37Z</time>
      </trkpt>
      <trkpt lat="34.646780" lon="-118.752010">
        <ele>888.108</ele>
        <time>2018-12-28T02:15:57Z</time>
      </trkpt>
      <trkpt lat="34.647220" lon="-118.752200">
        <ele>886.979</ele>
        <time>2018-12-28T02:16:17Z</time>
      </trkpt>
      <trkpt lat="34.647540" lon="-118.752340">
        <ele>885.897</ele>
        <time>2018-12-28T02:16:37Z</time>
      </trkpt>
      <trkpt lat="34.648340" lon="-118.752690">
        <ele>883.252</ele>
        <time>2018-12-28T02:16:57Z</time>
      </trkpt>
      <trkpt lat="34.648740" lon="-118.752860">
        <ele>881.051</ele>
        <time>2018-12-28T02:17:17Z</time>
      </trkpt>
      <trkpt lat="34.649260" lon="-118.753090">
        <ele>878.455</ele>
        <time>2018-12-28T02:17:37Z</time>
      </trkpt>
      <trkpt lat="34.650370" lon="-118.753570">
        <ele>873.998</ele>
        <time>2018-12-28T02:17:57Z</time>
      </trkpt>
      <trkpt lat="34.651020" lon="-118.753860">
        <ele>871.062</ele>
        <time>2018-12-28T02:18:17Z</time>
      </trkpt>
      <trkpt lat="34.651340" lon="-118.754000">
        <ele>869.615</ele>
        <time>2018-12-28T02:18:37Z</time>
      </trkpt>
      <trkpt lat="34.651590" lon="-118.754100">
        <ele>868.125</ele>
        <time>2018-12-28T02:18:57Z</time>
      </trkpt>
      <trkpt lat="34.651810" lon="-118.754180">
        <ele>867.226</ele>
        <time>2018-12-28T02:19:17Z</time>
      </trkpt>
      <trkpt lat="34.652010" lon="-118.754250">
        <ele>866.708</ele>
        <time>2018-12-28T02:19:37Z</time>
      </trkpt>
      <trkpt lat="34.652330" lon="-118.754330">
        <ele>864.508</ele>
        <time>2018-12-28T02:19:57Z</time>
      </trkpt>
      <trkpt lat="34.652530" lon="-118.754390">
        <ele>863.695</ele>
        <time>2018-12-28T02:20:17Z</time>
      </trkpt>
      <trkpt lat="34.652740" lon="-118.754430">
        <ele>862.943</ele>
        <time>2018-12-28T02:20:37Z</time>
      </trkpt>
      <trkpt lat="34.652990" lon="-118.754470">
        <ele>862.178</ele>
        <time>2018-12-28T02:20:57Z</time>
      </trkpt>
      <trkpt lat="34.653280" lon="-118.754510">
        <ele>861.187</ele>
        <time>2018-12-28T02:21:17Z</time>
      </trkpt>
      <trkpt lat="34.653530" lon="-118.754530">
        <ele>860.091</ele>
        <time>2018-12-28T02:21:37Z</time>
      </trkpt>
      <trkpt lat="34.653910" lon="-118.754550">
        <ele>858.134</ele>
        <time>2018-12-28T02:21:57Z</time>
      </trkpt>
      <trkpt lat="34.654130" lon="-118.754560">
        <ele>857.038</ele>
        <time>2018-12-28T02:22:17Z</time>
      </trkpt>
      <trkpt lat="34.654570" lon="-118.754570">
        <ele>855.071</ele>
        <time>2018-12-28T02:22:37Z</time>
      </trkpt>
      <trkpt lat="34.655030" lon="-118.754550">
        <ele>853.184</ele>
        <time>2018-12-28T02:22:57Z</time>
      </trkpt>
      <trkpt lat="34.655420" lon="-118.754540">
        <ele>851.407</ele>
        <time>2018-12-28T02:23:17Z</time>
      </trkpt>
      <trkpt lat="34.656020" lon="-118.754540">
        <ele>848.617</ele>
        <time>2018-12-28T02:23:37Z</time>
      </trkpt>
      <trkpt lat="34.656240" lon="-118.754530">
        <ele>847.608</ele>
        <time>2018-12-28T02:23:57Z</time>
      </trkpt>
      <trkpt lat="34.656440" lon="-118.754540">
        <ele>846.221</ele>
        <time>2018-12-28T02:24:17Z</time>
      </trkpt>
      <trkpt lat="34.656540" lon="-118.754550">
        <ele>845.739</ele>
        <time>2018-12-28T02:24:37Z</time>
      </trkpt>
      <trkpt lat="34.656840" lon="-118.754560">
        <ele>844.984</ele>
        <time>2018-12-28T02:24:57Z</time>
      </trkpt>
      <trkpt lat="34.657080" lon="-118.754590">
        <ele>843.973</ele>
        <time>2018-12-28T02:25:17Z</time>
      </trkpt>
      <trkpt lat="34.657520" lon="-118.754680">
        <ele>842.187</ele>
        <time>2018-12-28T02:25:37Z</time>
      </trkpt>
      <trkpt lat="34.657750" lon="-118.754720">
        <ele>840.840</ele>
        <time>2018-12-28T02:25:57Z</time>
      </trkpt>
      <trkpt lat="34.658200" lon="-118.754830">
        <ele>838.524</ele>
        <time>2018-12-28T02:26:17Z</time>
      </trkpt>
      <trkpt lat="34.658460" lon="-118.754920">
        <ele>837.857</ele>
        <time>2018-12-28T02:26:37Z</time>
      </trkpt>
      <trkpt lat="34.658740" lon="-118.755020">
        <ele>836.299</ele>
        <time>2018-12-28T02:26:57Z</time>
      </trkpt>
      <trkpt lat="34.658880" lon="-118.755080">
        <ele>835.107</ele>
        <time>2018-12-28T02:27:17Z</time>
      </trkpt>
      <trkpt lat="34.659070" lon="-118.755160">
        <ele>835.027</ele>
        <time>2018-12-28T02:27:37Z</time>
      </trkpt>
      <trkpt lat="34.659280" lon="-118.755270">
        <ele>833.908</ele>
        <time>2018-12-28T02:27:57Z</time>
      </trkpt>
      <trkpt lat="34.659480" lon="-118.755360">
        <ele>832.292</ele>
        <time>2018-12-28T02:28:17Z</time>
      </trkpt>
      <trkpt lat="34.659640" lon="-118.755450">
        <ele>832.250</ele>
        <time>2018-12-28T02:28:37Z</time>
      </trkpt>
      <trkpt lat="34.659860" lon="-118.755580">
        <ele>830.955</ele>
        <time>2018-12-28T02:28:57Z</time>
      </trkpt>
      <trkpt lat="34.660070" lon="-118.755710">
        <ele>829.924</ele>
        <time>2018-12-28T02:29:17Z</time>
      </trkpt>
      <trkpt lat="34.660230" lon="-118.755820">
        <ele>828.658</ele>
        <time>2018-12-28T02:29:37Z</time>
      </trkpt>
      <trkpt lat="34.660390" lon="-118.755940">
        <ele>827.971</ele>
        <time>2018-12-28T02:29:57Z</time>
      </trkpt>
      <trkpt lat="34.660530" lon="-118.756040">
        <ele>827.425</ele>
        <time>2018-12-28T02:30:17Z</time>
      </trkpt>
      <trkpt lat="34.660670" lon="-118.756150">
        <ele>826.588</ele>
        <time>2018-12-28T02:30:37Z</time>
      </trkpt>
      <trkpt lat="34.660910" lon="-118.756340">
        <ele>825.768</ele>
        <time>2018-12-28T02:30:57Z</time>
      </trkpt>
      <trkpt lat="34.661160" lon="-118.756550">
        <ele>824.742</ele>
        <time>2018-12-28T02:31:17Z</time>
      </trkpt>
      <trkpt lat="34.661290" lon="-118.756670">
        <ele>823.926</ele>
        <time>2018-12-28T02:31:37Z</time>
      </trkpt>
      <trkpt lat="34.661430" lon="-118.756820">
        <ele>824.208</ele>
        <time>2018-12-28T02:31:57Z</time>
      </trkpt>
      <trkpt lat="34.661600" lon="-118.757000">
        <ele>823.359</ele>
        <time>2018-12-28T02:32:17Z</time>
      </trkpt>
      <trkpt lat="34.661810" lon="-118.757220">
        <ele>823.727</ele>
        <time>2018-12-28T02:32:37Z</time>
      </trkpt>
      <trkpt lat="34.661940" lon="-118.757360">
        <ele>823.932</ele>
        <time>2018-12-28T02:32:57Z</time>
      </trkpt>
      <trkpt lat="34.662120" lon="-118.757590">
        <ele>823.721</ele>
        <time>2018-12-28T02:33:17Z</time>
      </trkpt>
      <trkpt lat="34.662490" lon="-118.758100">
        <ele>824.495</ele>
        <time>2018-12-28T02:33:37Z</time>
      </trkpt>
      <trkpt lat="34.662670" lon="-118.758350">
        <ele>825.348</ele>
        <time>2018-12-28T02:33:57Z</time>
      </trkpt>
      <trkpt lat="34.663060" lon="-118.758960">
        <ele>827.612</ele>
        <time>2018-12-28T02:34:17Z</time>
      </trkpt>
      <trkpt lat="34.663390" lon="-118.759480">
        <ele>830.515</ele>
        <time>2018-12-28T02:34:37Z</time>
      </trkpt>
      <trkpt lat="34.663730" lon="-118.760010">
        <ele>832.974</ele>
        <time>2018-12-28T02:34:57Z</time>
      </trkpt>
      <trkpt lat="34.663900" lon="-118.760270">
        <ele>834.256</ele>
        <time>2018-12-28T02:35:17Z</time>
      </trkpt>
      <trkpt lat="34.664050" lon="-118.760510">
        <ele>834.921</ele>
        <time>2018-12-28T02:35:37Z</time>
      </trkpt>
      <trkpt lat="34.664200" lon="-118.760720">
        <ele>835.608</ele>
        <time>2018-12-28T02:35:57Z</time>
      </trkpt>
      <trkpt lat="34.664360" lon="-118.760930">
        <ele>836.940</ele>
        <time>2018-12-28T02:36:17Z</time>
      </trkpt>
      <trkpt lat="34.664560" lon="-118.761170">
        <ele>837.988</ele>
        <time>2018-12-28T02:36:37Z</time>
      </trkpt>
      <trkpt lat="34.664740" lon="-118.761370">
        <ele>838.913</ele>
        <time>2018-12-28T02:36:57Z</time>
      </trkpt>
      <trkpt lat="34.665020" lon="-118.761670">
        <ele>840.372</ele>
        <time>2018-12-28T02:37:17Z</time>
      </trkpt>
      <trkpt lat="34.665060" lon="-118.761760">
        <ele>840.446</ele>
        <time>2018-12-28T02:37:37Z</time>
      </trkpt>
      <trkpt lat="34.665070" lon="-118.761790">
        <ele>840.439</ele>
        <time>2018-12-28T02:37:57Z</time>
      </trkpt>
      <trkpt lat="34.665140" lon="-118.761860">
        <ele>840.613</ele>
        <time>2018-12-28T02:38:17Z</time>
      </trkpt>
      <trkpt lat="34.665290" lon="-118.761990">
        <ele>841.046</ele>
        <time>2018-12-28T02:38:37Z</time>
      </trkpt>
      <trkpt lat="34.665430" lon="-118.762120">
        <ele>841.349</ele>
        <time>2018-12-28T02:38:57Z</time>
      </trkpt>
      <trkpt lat="34.665720" lon="-118.762370">
        <ele>842.202</ele>
        <time>2018-12-28T02:39:17Z</time>
      </trkpt>
      <trkpt lat="34.665820" lon="-118.762450">
        <ele>842.622</ele>
        <time>2018-12-28T02:39:37Z</time>
      </trkpt>
      <trkpt lat="34.665950" lon="-118.762560">
        <ele>842.808</ele>
        <time>2018-12-28T02:39:57Z</time>
      </trkpt>
      <trkpt lat="34.666090" lon="-118.762660">
        <ele>842.627</ele>
        <time>2018-12-28T02:40:17Z</time>
      </trkpt>
      <trkpt lat="34.666370" lon="-118.762870">
        <ele>843.065</ele>
        <time>2018-12-28T02:40:37Z</time>
      </trkpt>
      <trkpt lat="34.666590" lon="-118.763010">
        <ele>843.250</ele>
        <time>2018-12-28T02:40:57Z</time>
      </trkpt>
      <trkpt lat="34.666710" lon="-118.763090">
        <ele>843.429</ele>
        <time>2018-12-28T02:41:17Z</time>
      </trkpt>
      <trkpt lat="34.666860" lon="-118.763170">
        <ele>843.223</ele>
        <time>2018-12-28T02:41:37Z</time>
      </trkpt>
      <trkpt lat="34.667060" lon="-118.763290">
        <ele>842.996</ele>
        <time>2018-12-28T02:41:57Z</time>
      </trkpt>
      <trkpt lat="34.667120" lon="-118.763330">
        <ele>843.120</ele>
        <time>2018-12-28T02:42:17Z</time>
      </trkpt>
      <trkpt lat="34.667270" lon="-118.763410">
        <ele>843.373</ele>
        <time>2018-12-28T02:42:37Z</time>
      </trkpt>
      <trkpt lat="34.667550" lon="-118.763560">
        <ele>842.324</ele>
        <time>2018-12-28T02:42:57Z</time>
      </trkpt>
      <trkpt lat="34.667830" lon="-118.763720">
        <ele>842.204</ele>
        <time>2018-12-28T02:43:17Z</time>
      </trkpt>
      <trkpt lat="34.668230" lon="-118.763930">
        <ele>840.914</ele>
        <time>2018-12-28T02:43:37Z</time>
      </trkpt>
      <trkpt lat="34.668560" lon="-118.764100">
        <ele>840.408</ele>
        <time>2018-12-28T02:43:57Z</time>
      </trkpt>
      <trkpt lat="34.668920" lon="-118.764300">
        <ele>839.315</ele>
        <time>2018-12-28T02:44:17Z</time>
      </trkpt>
      <trkpt lat="34.669040" lon="-118.764380">
        <ele>839.243</ele>
        <time>2018-12-28T02:44:37Z</time>
      </trkpt>
      <trkpt lat="34.669170" lon="-118.764460">
        <ele>838.878</ele>
        <time>2018-12-28T02:44:57Z</time>
      </trkpt>
      <trkpt lat="34.669360" lon="-118.764580">
        <ele>838.037</ele>
        <time>2018-12-28T02:45:17Z</time>
      </trkpt>
      <trkpt lat="34.669410" lon="-118.764620">
        <ele>837.921</ele>
        <time>2018-12-28T02:45:37Z</time>
      </trkpt>
      <trkpt lat="34.669720" lon="-118.764840">
        <ele>836.724</ele>
        <time>2018-12-28T02:45:57Z</time>
      </trkpt>
      <trkpt lat="34.669940" lon="-118.765010">
        <ele>836.268</ele>
        <time>2018-12-28T02:46:17Z</time>
      </trkpt>
      <trkpt lat="34.670040" lon="-118.765100">
        <ele>835.921</ele>
        <time>2018-12-28T02:46:37Z</time>
      </trkpt>
      <trkpt lat="34.670330" lon="-118.765360">
        <ele>835.467</ele>
        <time>2018-12-28T02:46:57Z</time>
      </trkpt>
      <trkpt lat="34.670510" lon="-118.765530">
        <ele>835.081</ele>
        <time>2018-12-28T02:47:17Z</time>
      </trkpt>
      <trkpt lat="34.670650" lon="-118.765680">
        <ele>835.019</ele>
        <time>2018-12-28T02:47:37Z</time>
      </trkpt>
      <trkpt lat="34.670870" lon="-118.765920">
        <ele>834.908</ele>
        <time>2018-12-28T02:47:57Z</time>
      </trkpt>
      <trkpt lat="34.670980" lon="-118.766050">
        <ele>835.189</ele>
        <time>2018-12-28T02:48:17Z</time>
      </trkpt>
      <trkpt lat="34.671060" lon="-118.766140">
        <ele>835.037</ele>
        <time>2018-12-28T02:48:37Z</time>
      </trkpt>
      <trkpt lat="34.671180" lon="-118.766290">
        <ele>835.672</ele>
        <time>2018-12-28T02:48:57Z</time>
      </trkpt>
      <trkpt lat="34.671280" lon="-118.766420">
        <ele>835.671</ele>
        <time>2018-12-28T02:49:17Z</time>
      </trkpt>
      <trkpt lat="34.671370" lon="-118.766550">
        <ele>836.085</ele>
        <time>2018-12-28T02:49:37Z</time>
      </trkpt>
      <trkpt lat="34.671470" lon="-118.766690">
        <ele>836.598</ele>
        <time>2018-12-28T02:49:57Z</time>
      </trkpt>
      <trkpt lat="34.671570" lon="-118.766830">
        <ele>836.542</ele>
        <time>2018-12-28T02:50:17Z</time>
      </trkpt>
      <trkpt lat="34.671620" lon="-118.766910">
        <ele>836.615</ele>
        <time>2018-12-28T02:50:37Z</time>
      </trkpt>
      <trkpt lat="34.671680" lon="-118.766990">
        <ele>836.934</ele>
        <time>2018-12-28T02:50:57Z</time>
      </trkpt>
      <trkpt lat="34.671770" lon="-118.767130">
        <ele>837.955</ele>
        <time>2018-12-28T02:51:17Z</time>
      </trkpt>
      <trkpt lat="34.671870" lon="-118.767300">
        <ele>838.110</ele>
        <time>2018-12-28T02:51:37Z</time>
      </trkpt>
      <trkpt lat="34.671940" lon="-118.767410">
        <ele>838.708</ele>
        <time>2018-12-28T02:51:57Z</time>
      </trkpt>
      <trkpt lat="34.672160" lon="-118.767780">
        <ele>839.546</ele>
        <time>2018-12-28T02:52:17Z</time>
      </trkpt>
      <trkpt lat="34.672270" lon="-118.767990">
        <ele>841.174</ele>
        <time>2018-12-28T02:52:37Z</time>
      </trkpt>
      <trkpt lat="34.672350" lon="-118.768140">
        <ele>841.689</ele>
        <time>2018-12-28T02:52:57Z</time>
      </trkpt>
      <trkpt lat="34.672480" lon="-118.768410">
        <ele>842.138</ele>
        <time>2018-12-28T02:53:17Z</time>
      </trkpt>
      <trkpt lat="34.672640" lon="-118.768760">
        <ele>843.952</ele>
        <time>2018-12-28T02:53:37Z</time>
      </trkpt>
      <trkpt lat="34.672750" lon="-118.769020">
        <ele>844.115</ele>
        <time>2018-12-28T02:53:57Z</time>
      </trkpt>
      <trkpt lat="34.672850" lon="-118.769290">
        <ele>845.899</ele>
        <time>2018-12-28T02:54:17Z</time>
      </trkpt>
      <trkpt lat="34.672950" lon="-118.769570">
        <ele>846.022</ele>
        <time>2018-12-28T02:54:37Z</time>
      </trkpt>
      <trkpt lat="34.673020" lon="-118.769810">
        <ele>846.597</ele>
        <time>2018-12-28T02:54:57Z</time>
      </trkpt>
      <trkpt lat="34.673090" lon="-118.770050">
        <ele>848.123</ele>
        <time>2018-12-28T02:55:17Z</time>
      </trkpt>
      <trkpt lat="34.673180" lon="-118.770330">
        <ele>849.425</ele>
        <time>2018-12-28T02:55:37Z</time>
      </trkpt>
      <trkpt lat="34.673320" lon="-118.770870">
        <ele>850.008</ele>
        <time>2018-12-28T02:55:57Z</time>
      </trkpt>
      <trkpt lat="34.673560" lon="-118.771800">
        <ele>853.142</ele>
        <time>2018-12-28T02:56:17Z</time>
      </trkpt>
      <trkpt lat="34.673720" lon="-118.772390">
        <ele>856.320</ele>
        <time>2018-12-28T02:56:37Z</time>
      </trkpt>
      <trkpt lat="34.673790" lon="-118.772650">
        <ele>858.285</ele>
        <time>2018-12-28T02:56:57Z</time>
      </trkpt>
      <trkpt lat="34.673850" lon="-118.772860">
        <ele>859.044</ele>
        <time>2018-12-28T02:57:17Z</time>
      </trkpt>
      <trkpt lat="34.673910" lon="-118.773050">
        <ele>859.218</ele>
        <time>2018-12-28T02:57:37Z</time>
      </trkpt>
      <trkpt lat="34.674080" lon="-118.773590">
        <ele>861.391</ele>
        <time>2018-12-28T02:57:57Z</time>
      </trkpt>
      <trkpt lat="34.674190" lon="-118.773850">
        <ele>862.025</ele>
        <time>2018-12-28T02:58:17Z</time>
      </trkpt>
      <trkpt lat="34.674250" lon="-118.774020">
        <ele>862.138</ele>
        <time>2018-12-28T02:58:37Z</time>
      </trkpt>
      <trkpt lat="34.674320" lon="-118.774190">
        <ele>863.047</ele>
        <time>2018-12-28T02:58:57Z</time>
      </trkpt>
      <trkpt lat="34.674470" lon="-118.774500">
        <ele>864.429</ele>
        <time>2018-12-28T02:59:17Z</time>
      </trkpt>
      <trkpt lat="34.674620" lon="-118.774800">
        <ele>865.121</ele>
        <time>2018-12-28T02:59:37Z</time>
      </trkpt>
      <trkpt lat="34.674820" lon="-118.775160">
        <ele>865.408</ele>
        <time>2018-12-28T02:59:57Z</time>
      </trkpt>
      <trkpt lat="34.674960" lon="-118.775410">
        <ele>866.567</ele>
        <time>2018-12-28T03:00:17Z</time>
      </trkpt>
      <trkpt lat="34.675100" lon="-118.775620">
        <ele>866.935</ele>
        <time>2018-12-28T03:00:37Z</time>
      </trkpt>
      <trkpt lat="34.675220" lon="-118.775810">
        <ele>868.040</ele>
        <time>2018-12-28T03:00:57Z</time>
      </trkpt>
      <trkpt lat="34.675440" lon="-118.776120">
        <ele>867.669</ele>
        <time>2018-12-28T03:01:17Z</time>
      </trkpt>
      <trkpt lat="34.675680" lon="-118.776420">
        <ele>867.883</ele>
        <time>2018-12-28T03:01:37Z</time>
      </trkpt>
      <trkpt lat="34.675840" lon="-118.776620">
        <ele>868.646</ele>
        <time>2018-12-28T03:01:57Z</time>
      </trkpt>
      <trkpt lat="34.676030" lon="-118.776840">
        <ele>868.340</ele>
        <time>2018-12-28T03:02:17Z</time>
      </trkpt>
      <trkpt lat="34.676230" lon="-118.777050">
        <ele>868.413</ele>
        <time>2018-12-28T03:02:37Z</time>
      </trkpt>
      <trkpt lat="34.676440" lon="-118.777260">
        <ele>869.221</ele>
        <time>2018-12-28T03:02:57Z</time>
      </trkpt>
      <trkpt lat="34.676630" lon="-118.777430">
        <ele>869.041</ele>
        <time>2018-12-28T03:03:17Z</time>
      </trkpt>
      <trkpt lat="34.676980" lon="-118.777740">
        <ele>868.705</ele>
        <time>2018-12-28T03:03:37Z</time>
      </trkpt>
      <trkpt lat="34.677170" lon="-118.777880">
        <ele>868.508</ele>
        <time>2018-12-28T03:03:57Z</time>
      </trkpt>
      <trkpt lat="34.677320" lon="-118.778000">
        <ele>868.835</ele>
        <time>2018-12-28T03:04:17Z</time>
      </trkpt>
      <trkpt lat="34.677470" lon="-118.778100">
        <ele>868.263</ele>
        <time>2018-12-28T03:04:37Z</time>
      </trkpt>
      <trkpt lat="34.677710" lon="-118.778260">
        <ele>868.938</ele>
        <time>2018-12-28T03:04:57Z</time>
      </trkpt>
      <trkpt lat="34.678040" lon="-118.778470">
        <ele>869.317</ele>
        <time>2018-12-28T03:05:17Z</time>
      </trkpt>
      <trkpt lat="34.678200" lon="-118.778560">
        <ele>869.311</ele>
        <time>2018-12-28T03:05:37Z</time>
      </trkpt>
      <trkpt lat="34.678350" lon="-118.778640">
        <ele>868.964</ele>
        <time>2018-12-28T03:05:57Z</time>
      </trkpt>
      <trkpt lat="34.678900" lon="-118.778910">
        <ele>869.518</ele>
        <time>2018-12-28T03:06:17Z</time>
      </trkpt>
      <trkpt lat="34.679570" lon="-118.779230">
        <ele>870.121</ele>
        <time>2018-12-28T03:06:37Z</time>
      </trkpt>
      <trkpt lat="34.679780" lon="-118.779340">
        <ele>870.687</ele>
        <time>2018-12-28T03:06:57Z</time>
      </trkpt>
      <trkpt lat="34.680020" lon="-118.779480">
        <ele>870.142</ele>
        <time>2018-12-28T03:07:17Z</time>
      </trkpt>
      <trkpt lat="34.680160" lon="-118.779570">
        <ele>870.526</ele>
        <time>2018-12-28T03:07:37Z</time>
      </trkpt>
      <trkpt lat="34.680340" lon="-118.779680">
        <ele>870.608</ele>
        <time>2018-12-28T03:07:57Z</time>
      </trkpt>
      <trkpt lat="34.680580" lon="-118.779840">
        <ele>870.541</ele>
        <time>2018-12-28T03:08:17Z</time>
      </trkpt>
      <trkpt lat="34.680740" lon="-118.779960">
        <ele>870.719</ele>
        <time>2018-12-28T03:08:37Z</time>
      </trkpt>
      <trkpt lat="34.680990" lon="-118.780150">
        <ele>869.994</ele>
        <time>2018-12-28T03:08:57Z</time>
      </trkpt>
      <trkpt lat="34.681170" lon="-118.780300">
        <ele>869.933</ele>
        <time>2018-12-28T03:09:17Z</time>
      </trkpt>
      <trkpt lat="34.681500" lon="-118.780590">
        <ele>868.447</ele>
        <time>2018-12-28T03:09:37Z</time>
      </trkpt>
      <trkpt lat="34.681660" lon="-118.780740">
        <ele>867.610</ele>
        <time>2018-12-28T03:09:57Z</time>
      </trkpt>
      <trkpt lat="34.681960" lon="-118.781000">
        <ele>866.734</ele>
        <time>2018-12-28T03:10:17Z</time>
      </trkpt>
      <trkpt lat="34.682100" lon="-118.781130">
        <ele>866.487</ele>
        <time>2018-12-28T03:10:37Z</time>
      </trkpt>
      <trkpt lat="34.684070" lon="-118.782880">
        <ele>861.016</ele>
        <time>2018-12-28T03:10:57Z</time>
      </trkpt>
      <trkpt lat="34.684550" lon="-118.783310">
        <ele>859.776</ele>
        <time>2018-12-28T03:11:17Z</time>
      </trkpt>
      <trkpt lat="34.685530" lon="-118.784160">
        <ele>858.213</ele>
        <time>2018-12-28T03:11:37Z</time>
      </trkpt>
      <trkpt lat="34.685660" lon="-118.784270">
        <ele>857.508</ele>
        <time>2018-12-28T03:11:57Z</time>
      </trkpt>
      <trkpt lat="34.686380" lon="-118.784890">
        <ele>855.184</ele>
        <time>2018-12-28T03:12:17Z</time>
      </trkpt>
      <trkpt lat="34.686910" lon="-118.785370">
        <ele>853.622</ele>
        <time>2018-12-28T03:12:37Z</time>
      </trkpt>
      <trkpt lat="34.687440" lon="-118.785840">
        <ele>851.547</ele>
        <time>2018-12-28T03:12:57Z</time>
      </trkpt>
      <trkpt lat="34.687740" lon="-118.786100">
        <ele>851.056</ele>
        <time>2018-12-28T03:13:17Z</time>
      </trkpt>
      <trkpt lat="34.688030" lon="-118.786360">
        <ele>850.890</ele>
        <time>2018-12-28T03:13:37Z</time>
      </trkpt>
      <trkpt lat="34.688310" lon="-118.786610">
        <ele>851.113</ele>
        <time>2018-12-28T03:13:57Z</time>
      </trkpt>
      <trkpt lat="34.688640" lon="-118.786870">
        <ele>851.757</ele>
        <time>2018-12-28T03:14:17Z</time>
      </trkpt>
      <trkpt lat="34.688790" lon="-118.786980">
        <ele>852.180</ele>
        <time>2018-12-28T03:14:37Z</time>
      </trkpt>
      <trkpt lat="34.688920" lon="-118.787070">
        <ele>852.223</ele>
        <time>2018-12-28T03:14:57Z</time>
      </trkpt>
      <trkpt lat="34.689030" lon="-118.787140">
        <ele>852.283</ele>
        <time>2018-12-28T03:15:17Z</time>
      </trkpt>
      <trkpt lat="34.689270" lon="-118.787300">
        <ele>853.211</ele>
        <time>2018-12-28T03:15:37Z</time>
      </trkpt>
      <trkpt lat="34.689440" lon="-118.787410">
        <ele>852.508</ele>
        <time>2018-12-28T03:15:57Z</time>
      </trkpt>
      <trkpt lat="34.689600" lon="-118.787490">
        <ele>852.695</ele>
        <time>2018-12-28T03:16:17Z</time>
      </trkpt>
      <trkpt lat="34.690030" lon="-118.787720">
        <ele>853.343</ele>
        <time>2018-12-28T03:16:37Z</time>
      </trkpt>
      <trkpt lat="34.690760" lon="-118.788120">
        <ele>854.418</ele>
        <time>2018-12-28T03:16:57Z</time>
      </trkpt>
      <trkpt lat="34.691260" lon="-118.788390">
        <ele>854.537</ele>
        <time>2018-12-28T03:17:17Z</time>
      </trkpt>
      <trkpt lat="34.691940" lon="-118.788770">
        <ele>853.571</ele>
        <time>2018-12-28T03:17:37Z</time>
      </trkpt>
      <trkpt lat="34.692560" lon="-118.789110">
        <ele>855.464</ele>
        <time>2018-12-28T03:17:57Z</time>
      </trkpt>
      <trkpt lat="34.692870" lon="-118.789280">
        <ele>856.958</ele>
        <time>2018-12-28T03:18:17Z</time>
      </trkpt>
      <trkpt lat="34.693750" lon="-118.789770">
        <ele>856.041</ele>
        <time>2018-12-28T03:18:37Z</time>
      </trkpt>
      <trkpt lat="34.694460" lon="-118.790150">
        <ele>856.023</ele>
        <time>2018-12-28T03:18:57Z</time>
      </trkpt>
      <trkpt lat="34.694840" lon="-118.790350">
        <ele>858.983</ele>
        <time>2018-12-28T03:19:17Z</time>
      </trkpt>
      <trkpt lat="34.695400" lon="-118.790660">
        <ele>858.311</ele>
        <time>2018-12-28T03:19:37Z</time>
      </trkpt>
      <trkpt lat="34.696080" lon="-118.791030">
        <ele>860.808</ele>
        <time>2018-12-28T03:19:57Z</time>
      </trkpt>
      <trkpt lat="34.696780" lon="-118.791420">
        <ele>862.045</ele>
        <time>2018-12-28T03:20:17Z</time>
      </trkpt>
      <trkpt lat="34.697320" lon="-118.791710">
        <ele>858.673</ele>
        <time>2018-12-28T03:20:37Z</time>
      </trkpt>
      <trkpt lat="34.697460" lon="-118.791780">
        <ele>856.858</ele>
        <time>2018-12-28T03:20:57Z</time>
      </trkpt>
      <trkpt lat="34.697630" lon="-118.791870">
        <ele>854.727</ele>
        <time>2018-12-28T03:21:17Z</time>
      </trkpt>
      <trkpt lat="34.697770" lon="-118.791930">
        <ele>854.251</ele>
        <time>2018-12-28T03:21:37Z</time>
      </trkpt>
      <trkpt lat="34.697920" lon="-118.792000">
        <ele>853.214</ele>
        <time>2018-12-28T03:21:57Z</time>
      </trkpt>
      <trkpt lat="34.698080" lon="-118.792070">
        <ele>852.228</ele>
        <time>2018-12-28T03:22:17Z</time>
      </trkpt>
      <trkpt lat="34.698260" lon="-118.792150">
        <ele>852.461</ele>
        <time>2018-12-28T03:22:37Z</time>
      </trkpt>
      <trkpt lat="34.698410" lon="-118.792220">
        <ele>853.716</ele>
        <time>2018-12-28T03:22:57Z</time>
      </trkpt>
      <trkpt lat="34.698570" lon="-118.792280">
        <ele>855.676</ele>
        <time>2018-12-28T03:23:17Z</time>
      </trkpt>
      <trkpt lat="34.698780" lon="-118.792350">
        <ele>857.213</ele>
        <time>2018-12-28T03:23:37Z</time>
      </trkpt>
      <trkpt lat="34.699030" lon="-118.792430">
        <ele>858.308</ele>
        <time>2018-12-28T03:23:57Z</time>
      </trkpt>
      <trkpt lat="34.699390" lon="-118.792550">
        <ele>859.424</ele>
        <time>2018-12-28T03:24:17Z</time>
      </trkpt>
      <trkpt lat="34.699960" lon="-118.792740">
        <ele>863.792</ele>
        <time>2018-12-28T03:24:37Z</time>
      </trkpt>
      <trkpt lat="34.700400" lon="-118.792890">
        <ele>865.567</ele>
        <time>2018-12-28T03:24:57Z</time>
      </trkpt>
      <trkpt lat="34.700820" lon="-118.793020">
        <ele>865.346</ele>
        <time>2018-12-28T03:25:17Z</time>
      </trkpt>
      <trkpt lat="34.701360" lon="-118.793190">
        <ele>861.630</ele>
        <time>2018-12-28T03:25:37Z</time>
      </trkpt>
      <trkpt lat="34.701810" lon="-118.793350">
        <ele>857.973</ele>
        <time>2018-12-28T03:25:57Z</time>
      </trkpt>
      <trkpt lat="34.702030" lon="-118.793430">
        <ele>860.277</ele>
        <time>2018-12-28T03:26:17Z</time>
      </trkpt>
      <trkpt lat="34.702380" lon="-118.793560">
        <ele>862.540</ele>
        <time>2018-12-28T03:26:37Z</time>
      </trkpt>
      <trkpt lat="34.702840" lon="-118.793740">
        <ele>868.318</ele>
        <time>2018-12-28T03:26:57Z</time>
      </trkpt>
      <trkpt lat="34.703180" lon="-118.793890">
        <ele>871.698</ele>
        <time>2018-12-28T03:27:17Z</time>
      </trkpt>
      <trkpt lat="34.703300" lon="-118.793940">
        <ele>872.117</ele>
        <time>2018-12-28T03:27:37Z</time>
      </trkpt>
      <trkpt lat="34.704930" lon="-118.794640">
        <ele>876.508</ele>
        <time>2018-12-28T03:27:57Z</time>
      </trkpt>
      <trkpt lat="34.705130" lon="-118.794740">
        <ele>877.914</ele>
        <time>2018-12-28T03:28:17Z</time>
      </trkpt>
      <trkpt lat="34.705390" lon="-118.794860">
        <ele>879.742</ele>
        <time>2018-12-28T03:28:37Z</time>
      </trkpt>
      <trkpt lat="34.705750" lon="-118.795020">
        <ele>882.527</ele>
        <time>2018-12-28T03:28:57Z</time>
      </trkpt>
      <trkpt lat="34.706330" lon="-118.795280">
        <ele>883.726</ele>
        <time>2018-12-28T03:29:17Z</time>
      </trkpt>
      <trkpt lat="34.706960" lon="-118.795550">
        <ele>882.620</ele>
        <time>2018-12-28T03:29:37Z</time>
      </trkpt>
      <trkpt lat="34.708090" lon="-118.796040">
        <ele>877.423</ele>
        <time>2018-12-28T03:29:57Z</time>
      </trkpt>
      <trkpt lat="34.708110" lon="-118.796050">
        <ele>877.587</ele>
        <time>2018-12-28T03:30:17Z</time>
      </trkpt>
      <trkpt lat="34.709100" lon="-118.796490">
        <ele>879.260</ele>
        <time>2018-12-28T03:30:37Z</time>
      </trkpt>
      <trkpt lat="34.710190" lon="-118.796970">
        <ele>883.098</ele>
        <time>2018-12-28T03:30:57Z</time>
      </trkpt>
      <trkpt lat="34.711070" lon="-118.797340">
        <ele>882.315</ele>
        <time>2018-12-28T03:31:17Z</time>
      </trkpt>
      <trkpt lat="34.711390" lon="-118.797470">
        <ele>881.926</ele>
        <time>2018-12-28T03:31:37Z</time>
      </trkpt>
      <trkpt lat="34.712120" lon="-118.797780">
        <ele>881.208</ele>
        <time>2018-12-28T03:31:57Z</time>
      </trkpt>
      <trkpt lat="34.712230" lon="-118.797810">
        <ele>881.282</ele>
        <time>2018-12-28T03:32:17Z</time>
      </trkpt>
      <trkpt lat="34.712520" lon="-118.797910">
        <ele>881.240</ele>
        <time>2018-12-28T03:32:37Z</time>
      </trkpt>
      <trkpt lat="34.712910" lon="-118.798020">
        <ele>881.815</ele>
        <time>2018-12-28T03:32:57Z</time>
      </trkpt>
      <trkpt lat="34.713070" lon="-118.798050">
        <ele>882.114</ele>
        <time>2018-12-28T03:33:17Z</time>
      </trkpt>
      <trkpt lat="34.713220" lon="-118.798080">
        <ele>882.598</ele>
        <time>2018-12-28T03:33:37Z</time>
      </trkpt>
      <trkpt lat="34.713410" lon="-118.798110">
        <ele>883.061</ele>
        <time>2018-12-28T03:33:57Z</time>
      </trkpt>
      <trkpt lat="34.713640" lon="-118.798140">
        <ele>883.955</ele>
        <time>2018-12-28T03:34:17Z</time>
      </trkpt>
      <trkpt lat="34.714100" lon="-118.798180">
        <ele>886.418</ele>
        <time>2018-12-28T03:34:37Z</time>
      </trkpt>
      <trkpt lat="34.715720" lon="-118.798310">
        <ele>888.889</ele>
        <time>2018-12-28T03:34:57Z</time>
      </trkpt>
      <trkpt lat="34.721420" lon="-118.798740">
        <ele>901.306</ele>
        <time>2018-12-28T03:35:17Z</time>
      </trkpt>
      <trkpt lat="34.724060" lon="-118.798960">
        <ele>909.126</ele>
        <time>2018-12-28T03:35:37Z</time>
      </trkpt>
      <trkpt lat="34.725040" lon="-118.798990">
        <ele>909.708</ele>
        <time>2018-12-28T03:35:57Z</time>
      </trkpt>
      <trkpt lat="34.726170" lon="-118.798970">
        <ele>910.461</ele>
        <time>2018-12-28T03:36:17Z</time>
      </trkpt>
      <trkpt lat="34.727040" lon="-118.798930">
        <ele>913.379</ele>
        <time>2018-12-28T03:36:37Z</time>
      </trkpt>
      <trkpt lat="34.727340" lon="-118.798910">
        <ele>913.594</ele>
        <time>2018-12-28T03:36:57Z</time>
      </trkpt>
      <trkpt lat="34.727800" lon="-118.798860">
        <ele>912.963</ele>
        <time>2018-12-28T03:37:17Z</time>
      </trkpt>
      <trkpt lat="34.728170" lon="-118.798810">
        <ele>913.167</ele>
        <time>2018-12-28T03:37:37Z</time>
      </trkpt>
      <trkpt lat="34.728670" lon="-118.798750">
        <ele>914.370</ele>
        <time>2018-12-28T03:37:57Z</time>
      </trkpt>
      <trkpt lat="34.729260" lon="-118.798650">
        <ele>918.174</ele>
        <time>2018-12-28T03:38:17Z</time>
      </trkpt>
      <trkpt lat="34.729860" lon="-118.798540">
        <ele>919.647</ele>
        <time>2018-12-28T03:38:37Z</time>
      </trkpt>
      <trkpt lat="34.732440" lon="-118.798080">
        <ele>921.385</ele>
        <time>2018-12-28T03:38:57Z</time>
      </trkpt>
      <trkpt lat="34.733840" lon="-118.797830">
        <ele>922.789</ele>
        <time>2018-12-28T03:39:17Z</time>
      </trkpt>
      <trkpt lat="34.735360" lon="-118.797550">
        <ele>926.517</ele>
        <time>2018-12-28T03:39:37Z</time>
      </trkpt>
      <trkpt lat="34.736870" lon="-118.797280">
        <ele>935.008</ele>
        <time>2018-12-28T03:39:57Z</time>
      </trkpt>
      <trkpt lat="34.739120" lon="-118.796880">
        <ele>935.731</ele>
        <time>2018-12-28T03:40:17Z</time>
      </trkpt>
      <trkpt lat="34.741110" lon="-118.796530">
        <ele>941.259</ele>
        <time>2018-12-28T03:40:37Z</time>
      </trkpt>
      <trkpt lat="34.742620" lon="-118.796250">
        <ele>941.034</ele>
        <time>2018-12-28T03:40:57Z</time>
      </trkpt>
      <trkpt lat="34.744430" lon="-118.795940">
        <ele>945.293</ele>
        <time>2018-12-28T03:41:17Z</time>
      </trkpt>
      <trkpt lat="34.744880" lon="-118.795850">
        <ele>946.717</ele>
        <time>2018-12-28T03:41:37Z</time>
      </trkpt>
      <trkpt lat="34.745530" lon="-118.795730">
        <ele>950.790</ele>
        <time>2018-12-28T03:41:57Z</time>
      </trkpt>
      <trkpt lat="34.746590" lon="-118.795580">
        <ele>949.214</ele>
        <time>2018-12-28T03:42:17Z</time>
      </trkpt>
      <trkpt lat="34.746910" lon="-118.795550">
        <ele>948.267</ele>
        <time>2018-12-28T03:42:37Z</time>
      </trkpt>
      <trkpt lat="34.747580" lon="-118.795510">
        <ele>950.053</ele>
        <time>2018-12-28T03:42:57Z</time>
      </trkpt>
      <trkpt lat="34.747880" lon="-118.795490">
        <ele>950.304</ele>
        <time>2018-12-28T03:43:17Z</time>
      </trkpt>
      <trkpt lat="34.748220" lon="-118.795470">
        <ele>951.914</ele>
        <time>2018-12-28T03:43:37Z</time>
      </trkpt>
      <trkpt lat="34.748500" lon="-118.795460">
        <ele>954.208</ele>
        <time>2018-12-28T03:43:57Z</time>
      </trkpt>
      <trkpt lat="34.748510" lon="-118.795460">
        <ele>954.388</ele>
        <time>2018-12-28T03:44:17Z</time>
      </trkpt>
      <trkpt lat="34.748850" lon="-118.795460">
        <ele>956.966</ele>
        <time>2018-12-28T03:44:37Z</time>
      </trkpt>
      <trkpt lat="34.750690" lon="-118.795480">
        <ele>954.441</ele>
        <time>2018-12-28T03:44:57Z</time>
      </trkpt>
      <trkpt lat="34.751180" lon="-118.795490">
        <ele>959.940</ele>
        <time>2018-12-28T03:45:17Z</time>
      </trkpt>
      <trkpt lat="34.752440" lon="-118.795500">
        <ele>968.864</ele>
        <time>2018-12-28T03:45:37Z</time>
      </trkpt>
      <trkpt lat="34.753020" lon="-118.795520">
        <ele>968.097</ele>
        <time>2018-12-28T03:45:57Z</time>
      </trkpt>
      <trkpt lat="34.753780" lon="-118.795540">
        <ele>976.921</ele>
        <time>2018-12-28T03:46:17Z</time>
      </trkpt>
      <trkpt lat="34.755300" lon="-118.795570">
        <ele>981.544</ele>
        <time>2018-12-28T03:46:37Z</time>
      </trkpt>
      <trkpt lat="34.755830" lon="-118.795600">
        <ele>986.413</ele>
        <time>2018-12-28T03:46:57Z</time>
      </trkpt>
      <trkpt lat="34.756200" lon="-118.795590">
        <ele>988.243</ele>
        <time>2018-12-28T03:47:17Z</time>
      </trkpt>
      <trkpt lat="34.756750" lon="-118.795620">
        <ele>990.407</ele>
        <time>2018-12-28T03:47:37Z</time>
      </trkpt>
      <trkpt lat="34.757230" lon="-118.795630">
        <ele>991.508</ele>
        <time>2018-12-28T03:47:57Z</time>
      </trkpt>
      <trkpt lat="34.757330" lon="-118.795630">
        <ele>991.364</ele>
        <time>2018-12-28T03:48:17Z</time>
      </trkpt>
      <trkpt lat="34.757800" lon="-118.795660">
        <ele>988.832</ele>
        <time>2018-12-28T03:48:37Z</time>
      </trkpt>
      <trkpt lat="34.758040" lon="-118.795680">
        <ele>988.827</ele>
        <time>2018-12-28T03:48:57Z</time>
      </trkpt>
      <trkpt lat="34.758250" lon="-118.795700">
        <ele>988.786</ele>
        <time>2018-12-28T03:49:17Z</time>
      </trkpt>
      <trkpt lat="34.758460" lon="-118.795730">
        <ele>988.510</ele>
        <time>2018-12-28T03:49:37Z</time>
      </trkpt>
      <trkpt lat="34.758690" lon="-118.795770">
        <ele>988.693</ele>
        <time>2018-12-28T03:49:57Z</time>
      </trkpt>
      <trkpt lat="34.758740" lon="-118.795780">
        <ele>988.747</ele>
        <time>2018-12-28T03:50:17Z</time>
      </trkpt>
      <trkpt lat="34.759080" lon="-118.795860">
        <ele>990.050</ele>
        <time>2018-12-28T03:50:37Z</time>
      </trkpt>
      <trkpt lat="34.759200" lon="-118.795880">
        <ele>990.746</ele>
        <time>2018-12-28T03:50:57Z</time>
      </trkpt>
      <trkpt lat="34.759320" lon="-118.795900">
        <ele>991.288</ele>
        <time>2018-12-28T03:51:17Z</time>
      </trkpt>
      <trkpt lat="34.759440" lon="-118.795930">
        <ele>991.116</ele>
        <time>2018-12-28T03:51:37Z</time>
      </trkpt>
      <trkpt lat="34.759570" lon="-118.795970">
        <ele>991.208</ele>
        <time>2018-12-28T03:51:57Z</time>
      </trkpt>
      <trkpt lat="34.759870" lon="-118.796050">
        <ele>990.777</ele>
        <time>2018-12-28T03:52:17Z</time>
      </trkpt>
      <trkpt lat="34.760220" lon="-118.796160">
        <ele>991.085</ele>
        <time>2018-12-28T03:52:37Z</time>
      </trkpt>
      <trkpt lat="34.760410" lon="-118.796230">
        <ele>991.220</ele>
        <time>2018-12-28T03:52:57Z</time>
      </trkpt>
      <trkpt lat="34.760630" lon="-118.796320">
        <ele>991.379</ele>
        <time>2018-12-28T03:53:17Z</time>
      </trkpt>
      <trkpt lat="34.761080" lon="-118.796480">
        <ele>991.423</ele>
        <time>2018-12-28T03:53:37Z</time>
      </trkpt>
      <trkpt lat="34.761600" lon="-118.796730">
        <ele>991.846</ele>
        <time>2018-12-28T03:53:57Z</time>
      </trkpt>
      <trkpt lat="34.762060" lon="-118.796970">
        <ele>993.510</ele>
        <time>2018-12-28T03:54:17Z</time>
      </trkpt>
      <trkpt lat="34.762400" lon="-118.797170">
        <ele>996.683</ele>
        <time>2018-12-28T03:54:37Z</time>
      </trkpt>
      <trkpt lat="34.762410" lon="-118.797170">
        <ele>996.657</ele>
        <time>2018-12-28T03:54:57Z</time>
      </trkpt>
      <trkpt lat="34.762420" lon="-118.797180">
        <ele>996.700</ele>
        <time>2018-12-28T03:55:17Z</time>
      </trkpt>
      <trkpt lat="34.762750" lon="-118.797360">
        <ele>999.220</ele>
        <time>2018-12-28T03:55:37Z</time>
      </trkpt>
      <trkpt lat="34.763300" lon="-118.797670">
        <ele>1000.808</ele>
        <time>2018-12-28T03:55:57Z</time>
      </trkpt>
      <trkpt lat="34.763910" lon="-118.798010">
        <ele>1001.218</ele>
        <time>2018-12-28T03:56:17Z</time>
      </trkpt>
      <trkpt lat="34.765140" lon="-118.798710">
        <ele>1002.416</ele>
        <time>2018-12-28T03:56:37Z</time>
      </trkpt>
      <trkpt lat="34.765400" lon="-118.798860">
        <ele>1002.531</ele>
        <time>2018-12-28T03:56:57Z</time>
      </trkpt>
      <trkpt lat="34.766110" lon="-118.799310">
        <ele>1004.790</ele>
        <time>2018-12-28T03:57:17Z</time>
      </trkpt>
      <trkpt lat="34.766290" lon="-118.799420">
        <ele>1006.444</ele>
        <time>2018-12-28T03:57:37Z</time>
      </trkpt>
      <trkpt lat="34.766490" lon="-118.799550">
        <ele>1008.797</ele>
        <time>2018-12-28T03:57:57Z</time>
      </trkpt>
      <trkpt lat="34.766500" lon="-118.799560">
        <ele>1008.871</ele>
        <time>2018-12-28T03:58:17Z</time>
      </trkpt>
      <trkpt lat="34.766870" lon="-118.799800">
        <ele>1012.094</ele>
        <time>2018-12-28T03:58:37Z</time>
      </trkpt>
      <trkpt lat="34.767370" lon="-118.800130">
        <ele>1013.468</ele>
        <time>2018-12-28T03:58:57Z</time>
      </trkpt>
      <trkpt lat="34.768040" lon="-118.800600">
        <ele>1014.442</ele>
        <time>2018-12-28T03:59:17Z</time>
      </trkpt>
      <trkpt lat="34.768650" lon="-118.801060">
        <ele>1015.026</ele>
        <time>2018-12-28T03:59:37Z</time>
      </trkpt>
      <trkpt lat="34.769360" lon="-118.801620">
        <ele>1016.308</ele>
        <time>2018-12-28T03:59:57Z</time>
      </trkpt>
      <trkpt lat="34.769620" lon="-118.801850">
        <ele>1017.469</ele>
        <time>2018-12-28T04:00:17Z</time>
      </trkpt>
      <trkpt lat="34.770220" lon="-118.802370">
        <ele>1019.057</ele>
        <time>2018-12-28T04:00:37Z</time>
      </trkpt>
      <trkpt lat="34.770280" lon="-118.802420">
        <ele>1019.172</ele>
        <time>2018-12-28T04:00:57Z</time>
      </trkpt>
      <trkpt lat="34.770560" lon="-118.802690">
        <ele>1019.981</ele>
        <time>2018-12-28T04:01:17Z</time>
      </trkpt>
      <trkpt lat="34.771160" lon="-118.803250">
        <ele>1021.345</ele>
        <time>2018-12-28T04:01:37Z</time>
      </trkpt>
      <trkpt lat="34.771260" lon="-118.803340">
        <ele>1021.728</ele>
        <time>2018-12-28T04:01:57Z</time>
      </trkpt>
      <trkpt lat="34.773060" lon="-118.805280">
        <ele>1027.822</ele>
        <time>2018-12-28T04:02:17Z</time>
      </trkpt>
      <trkpt lat="34.773150" lon="-118.805410">
        <ele>1028.035</ele>
        <time>2018-12-28T04:02:37Z</time>
      </trkpt>
      <trkpt lat="34.773540" lon="-118.805890">
        <ele>1028.546</ele>
        <time>2018-12-28T04:02:57Z</time>
      </trkpt>
      <trkpt lat="34.773910" lon="-118.806350">
        <ele>1028.788</ele>
        <time>2018-12-28T04:03:17Z</time>
      </trkpt>
      <trkpt lat="34.774410" lon="-118.807000">
        <ele>1030.216</ele>
        <time>2018-12-28T04:03:37Z</time>
      </trkpt>
      <trkpt lat="34.774700" lon="-118.807390">
        <ele>1032.608</ele>
        <time>2018-12-28T04:03:57Z</time>
      </trkpt>
      <trkpt lat="34.775170" lon="-118.808060">
        <ele>1035.397</ele>
        <time>2018-12-28T04:04:17Z</time>
      </trkpt>
      <trkpt lat="34.775620" lon="-118.808740">
        <ele>1038.385</ele>
        <time>2018-12-28T04:04:37Z</time>
      </trkpt>
      <trkpt lat="34.775880" lon="-118.809140">
        <ele>1040.370</ele>
        <time>2018-12-28T04:04:57Z</time>
      </trkpt>
      <trkpt lat="34.776330" lon="-118.809860">
        <ele>1043.989</ele>
        <time>2018-12-28T04:05:17Z</time>
      </trkpt>
      <trkpt lat="34.776680" lon="-118.810440">
        <ele>1048.323</ele>
        <time>2018-12-28T04:05:37Z</time>
      </trkpt>
      <trkpt lat="34.776920" lon="-118.810860">
        <ele>1050.026</ele>
        <time>2018-12-28T04:05:57Z</time>
      </trkpt>
      <trkpt lat="34.777520" lon="-118.811860">
        <ele>1052.890</ele>
        <time>2018-12-28T04:06:17Z</time>
      </trkpt>
      <trkpt lat="34.777890" lon="-118.812480">
        <ele>1055.673</ele>
        <time>2018-12-28T04:06:37Z</time>
      </trkpt>
      <trkpt lat="34.778140" lon="-118.812880">
        <ele>1056.831</ele>
        <time>2018-12-28T04:06:57Z</time>
      </trkpt>
      <trkpt lat="34.778410" lon="-118.813330">
        <ele>1057.361</ele>
        <time>2018-12-28T04:07:17Z</time>
      </trkpt>
      <trkpt lat="34.778690" lon="-118.813790">
        <ele>1058.207</ele>
        <time>2018-12-28T04:07:37Z</time>
      </trkpt>
      <trkpt lat="34.778990" lon="-118.814300">
        <ele>1059.108</ele>
        <time>2018-12-28T04:07:57Z</time>
      </trkpt>
      <trkpt lat="34.779240" lon="-118.814700">
        <ele>1060.266</ele>
        <time>2018-12-28T04:08:17Z</time>
      </trkpt>
      <trkpt lat="34.779590" lon="-118.815290">
        <ele>1062.954</ele>
        <time>2018-12-28T04:08:37Z</time>
      </trkpt>
      <trkpt lat="34.779720" lon="-118.815500">
        <ele>1063.459</ele>
        <time>2018-12-28T04:08:57Z</time>
      </trkpt>
      <trkpt lat="34.780420" lon="-118.816690">
        <ele>1069.868</ele>
        <time>2018-12-28T04:09:17Z</time>
      </trkpt>
      <trkpt lat="34.781400" lon="-118.818300">
        <ele>1074.952</ele>
        <time>2018-12-28T04:09:37Z</time>
      </trkpt>
      <trkpt lat="34.782290" lon="-118.819800">
        <ele>1077.135</ele>
        <time>2018-12-28T04:09:57Z</time>
      </trkpt>
      <trkpt lat="34.782710" lon="-118.820470">
        <ele>1081.899</ele>
        <time>2018-12-28T04:10:17Z</time>
      </trkpt>
      <trkpt lat="34.783080" lon="-118.821100">
        <ele>1085.152</ele>
        <time>2018-12-28T04:10:37Z</time>
      </trkpt>
      <trkpt lat="34.783600" lon="-118.821970">
        <ele>1087.196</ele>
        <time>2018-12-28T04:10:57Z</time>
      </trkpt>
      <trkpt lat="34.784180" lon="-118.822940">
        <ele>1089.231</ele>
        <time>2018-12-28T04:11:17Z</time>
      </trkpt>
      <trkpt lat="34.784510" lon="-118.823470">
        <ele>1090.324</ele>
        <time>2018-12-28T04:11:37Z</time>
      </trkpt>
      <trkpt lat="34.784940" lon="-118.824210">
        <ele>1094.308</ele>
        <time>2018-12-28T04:11:57Z</time>
      </trkpt>
      <trkpt lat="34.785360" lon="-118.824920">
        <ele>1098.252</ele>
        <time>2018-12-28T04:12:17Z</time>
      </trkpt>
      <trkpt lat="34.785860" lon="-118.825740">
        <ele>1098.440</ele>
        <time>2018-12-28T04:12:37Z</time>
      </trkpt>
      <trkpt lat="34.785940" lon="-118.825870">
        <ele>1098.555</ele>
        <time>2018-12-28T04:12:57Z</time>
      </trkpt>
      <trkpt lat="34.786510" lon="-118.826820">
        <ele>1100.394</ele>
        <time>2018-12-28T04:13:17Z</time>
      </trkpt>
      <trkpt lat="34.787030" lon="-118.827600">
        <ele>1102.748</ele>
        <time>2018-12-28T04:13:37Z</time>
      </trkpt>
      <trkpt lat="34.787340" lon="-118.828060">
        <ele>1103.011</ele>
        <time>2018-12-28T04:13:57Z</time>
      </trkpt>
      <trkpt lat="34.787750" lon="-118.828650">
        <ele>1102.765</ele>
        <time>2018-12-28T04:14:17Z</time>
      </trkpt>
      <trkpt lat="34.787990" lon="-118.828980">
        <ele>1102.628</ele>
        <time>2018-12-28T04:14:37Z</time>
      </trkpt>
      <trkpt lat="34.788650" lon="-118.829860">
        <ele>1102.161</ele>
        <time>2018-12-28T04:14:57Z</time>
      </trkpt>
      <trkpt lat="34.788980" lon="-118.830270">
        <ele>1102.021</ele>
        <time>2018-12-28T04:15:17Z</time>
      </trkpt>
      <trkpt lat="34.790210" lon="-118.831910">
        <ele>1105.913</ele>
        <time>2018-12-28T04:15:37Z</time>
      </trkpt>
      <trkpt lat="34.790550" lon="-118.832350">
        <ele>1105.808</ele>
        <time>2018-12-28T04:15:57Z</time>
      </trkpt>
      <trkpt lat="34.791000" lon="-118.832950">
        <ele>1108.389</ele>
        <time>2018-12-28T04:16:17Z</time>
      </trkpt>
      <trkpt lat="34.791270" lon="-118.833310">
        <ele>1110.577</ele>
        <time>2018-12-28T04:16:37Z</time>
      </trkpt>
      <trkpt lat="34.791460" lon="-118.833610">
        <ele>1110.812</ele>
        <time>2018-12-28T04:16:57Z</time>
      </trkpt>
      <trkpt lat="34.791660" lon="-118.833930">
        <ele>1111.871</ele>
        <time>2018-12-28T04:17:17Z</time>
      </trkpt>
      <trkpt lat="34.791900" lon="-118.834320">
        <ele>1113.895</ele>
        <time>2018-12-28T04:17:37Z</time>
      </trkpt>
      <trkpt lat="34.792030" lon="-118.834540">
        <ele>1114.758</ele>
        <time>2018-12-28T04:17:57Z</time>
      </trkpt>
      <trkpt lat="34.792260" lon="-118.834980">
        <ele>1115.282</ele>
        <time>2018-12-28T04:18:17Z</time>
      </trkpt>
      <trkpt lat="34.792400" lon="-118.835280">
        <ele>1115.495</ele>
        <time>2018-12-28T04:18:37Z</time>
      </trkpt>
      <trkpt lat="34.792510" lon="-118.835520">
        <ele>1116.412</ele>
        <time>2018-12-28T04:18:57Z</time>
      </trkpt>
      <trkpt lat="34.792710" lon="-118.835970">
        <ele>1117.732</ele>
        <time>2018-12-28T04:19:17Z</time>
      </trkpt>
      <trkpt lat="34.792860" lon="-118.836340">
        <ele>1119.905</ele>
        <time>2018-12-28T04:19:37Z</time>
      </trkpt>
      <trkpt lat="34.793070" lon="-118.837000">
        <ele>1125.308</ele>
        <time>2018-12-28T04:19:57Z</time>
      </trkpt>
      <trkpt lat="34.793130" lon="-118.837170">
        <ele>1126.624</ele>
        <time>2018-12-28T04:20:17Z</time>
      </trkpt>
      <trkpt lat="34.793170" lon="-118.837290">
        <ele>1127.142</ele>
        <time>2018-12-28T04:20:37Z</time>
      </trkpt>
      <trkpt lat="34.793220" lon="-118.837520">
        <ele>1127.777</ele>
        <time>2018-12-28T04:20:57Z</time>
      </trkpt>
      <trkpt lat="34.793270" lon="-118.837700">
        <ele>1128.016</ele>
        <time>2018-12-28T04:21:17Z</time>
      </trkpt>
      <trkpt lat="34.793360" lon="-118.838110">
        <ele>1128.320</ele>
        <time>2018-12-28T04:21:37Z</time>
      </trkpt>
      <trkpt lat="34.793420" lon="-118.838450">
        <ele>1128.573</ele>
        <time>2018-12-28T04:21:57Z</time>
      </trkpt>
      <trkpt lat="34.793500" lon="-118.838960">
        <ele>1128.617</ele>
        <time>2018-12-28T04:22:17Z</time>
      </trkpt>
      <trkpt lat="34.793620" lon="-118.840010">
        <ele>1132.630</ele>
        <time>2018-12-28T04:22:37Z</time>
      </trkpt>
      <trkpt lat="34.793960" lon="-118.842940">
        <ele>1143.227</ele>
        <time>2018-12-28T04:22:57Z</time>
      </trkpt>
      <trkpt lat="34.794150" lon="-118.844460">
        <ele>1152.168</ele>
        <time>2018-12-28T04:23:17Z</time>
      </trkpt>
      <trkpt lat="34.794470" lon="-118.847000">
        <ele>1151.814</ele>
        <time>2018-12-28T04:23:37Z</time>
      </trkpt>
      <trkpt lat="34.794560" lon="-118.847690">
        <ele>1157.008</ele>
        <time>2018-12-28T04:23:57Z</time>
      </trkpt>
      <trkpt lat="34.795170" lon="-118.852260">
        <ele>1168.295</ele>
        <time>2018-12-28T04:24:17Z</time>
      </trkpt>
      <trkpt lat="34.795190" lon="-118.852410">
        <ele>1169.293</ele>
        <time>2018-12-28T04:24:37Z</time>
      </trkpt>
      <trkpt lat="34.795210" lon="-118.852540">
        <ele>1169.888</ele>
        <time>2018-12-28T04:24:57Z</time>
      </trkpt>
      <trkpt lat="34.795240" lon="-118.852750">
        <ele>1170.737</ele>
        <time>2018-12-28T04:25:17Z</time>
      </trkpt>
      <trkpt lat="34.795480" lon="-118.854580">
        <ele>1173.271</ele>
        <time>2018-12-28T04:25:37Z</time>
      </trkpt>
      <trkpt lat="34.795740" lon="-118.856460">
        <ele>1181.384</ele>
        <time>2018-12-28T04:25:57Z</time>
      </trkpt>
      <trkpt lat="34.795890" lon="-118.857520">
        <ele>1184.618</ele>
        <time>2018-12-28T04:26:17Z</time>
      </trkpt>
      <trkpt lat="34.795980" lon="-118.858310">
        <ele>1188.431</ele>
        <time>2018-12-28T04:26:37Z</time>
      </trkpt>
      <trkpt lat="34.796080" lon="-118.859260">
        <ele>1191.424</ele>
        <time>2018-12-28T04:26:57Z</time>
      </trkpt>
      <trkpt lat="34.796280" lon="-118.861040">
        <ele>1196.304</ele>
        <time>2018-12-28T04:27:17Z</time>
      </trkpt>
      <trkpt lat="34.796400" lon="-118.862050">
        <ele>1201.514</ele>
        <time>2018-12-28T04:27:37Z</time>
      </trkpt>
      <trkpt lat="34.796630" lon="-118.864200">
        <ele>1212.608</ele>
        <time>2018-12-28T04:27:57Z</time>
      </trkpt>
      <trkpt lat="34.796990" lon="-118.867190">
        <ele>1228.585</ele>
        <time>2018-12-28T04:28:17Z</time>
      </trkpt>
      <trkpt lat="34.797040" lon="-118.867560">
        <ele>1229.063</ele>
        <time>2018-12-28T04:28:37Z</time>
      </trkpt>
      <trkpt lat="34.797090" lon="-118.867930">
        <ele>1229.428</ele>
        <time>2018-12-28T04:28:57Z</time>
      </trkpt>
      <trkpt lat="34.797220" lon="-118.868570">
        <ele>1231.337</ele>
        <time>2018-12-28T04:29:17Z</time>
      </trkpt>
      <trkpt lat="34.797390" lon="-118.869150">
        <ele>1233.361</ele>
        <time>2018-12-28T04:29:37Z</time>
      </trkpt>
      <trkpt lat="34.797470" lon="-118.869420">
        <ele>1237.264</ele>
        <time>2018-12-28T04:29:57Z</time>
      </trkpt>
      <trkpt lat="34.797620" lon="-118.869830">
        <ele>1240.538</ele>
        <time>2018-12-28T04:30:17Z</time>
      </trkpt>
      <trkpt lat="34.797830" lon="-118.870330">
        <ele>1241.981</ele>
        <time>2018-12-28T04:30:37Z</time>
      </trkpt>
      <trkpt lat="34.797960" lon="-118.870590">
        <ele>1242.291</ele>
        <time>2018-12-28T04:30:57Z</time>
      </trkpt>
      <trkpt lat="34.798160" lon="-118.870970">
        <ele>1243.181</ele>
        <time>2018-12-28T04:31:17Z</time>
      </trkpt>
      <trkpt lat="34.798240" lon="-118.871120">
        <ele>1243.919</ele>
        <time>2018-12-28T04:31:37Z</time>
      </trkpt>
      <trkpt lat="34.798380" lon="-118.871330">
        <ele>1244.708</ele>
        <time>2018-12-28T04:31:57Z</time>
      </trkpt>
      <trkpt lat="34.798600" lon="-118.871670">
        <ele>1250.212</ele>
        <time>2018-12-28T04:32:17Z</time>
      </trkpt>
      <trkpt lat="34.798730" lon="-118.871860">
        <ele>1252.360</ele>
        <time>2018-12-28T04:32:37Z</time>
      </trkpt>
      <trkpt lat="34.798810" lon="-118.871970">
        <ele>1252.635</ele>
        <time>2018-12-28T04:32:57Z</time>
      </trkpt>
      <trkpt lat="34.798930" lon="-118.872120">
        <ele>1253.364</ele>
        <time>2018-12-28T04:33:17Z</time>
      </trkpt>
      <trkpt lat="34.799260" lon="-118.872520">
        <ele>1255.318</ele>
        <time>2018-12-28T04:33:37Z</time>
      </trkpt>
      <trkpt lat="34.800890" lon="-118.874430">
        <ele>1266.891</ele>
        <time>2018-12-28T04:33:57Z</time>
      </trkpt>
      <trkpt lat="34.802380" lon="-118.876160">
        <ele>1268.675</ele>
        <time>2018-12-28T04:34:17Z</time>
      </trkpt>
      <trkpt lat="34.802940" lon="-118.876810">
        <ele>1269.118</ele>
        <time>2018-12-28T04:34:37Z</time>
      </trkpt>
      <trkpt lat="34.803010" lon="-118.876900">
        <ele>1269.435</ele>
        <time>2018-12-28T04:34:57Z</time>
      </trkpt>
      <trkpt lat="34.803880" lon="-118.877910">
        <ele>1262.986</ele>
        <time>2018-12-28T04:35:17Z</time>
      </trkpt>
      <trkpt lat="34.804920" lon="-118.879130">
        <ele>1253.714</ele>
        <time>2018-12-28T04:35:37Z</time>
      </trkpt>
      <trkpt lat="34.806300" lon="-118.880740">
        <ele>1239.708</ele>
        <time>2018-12-28T04:35:57Z</time>
      </trkpt>
      <trkpt lat="34.806690" lon="-118.881200">
        <ele>1237.156</ele>
        <time>2018-12-28T04:36:17Z</time>
      </trkpt>
      <trkpt lat="34.807830" lon="-118.882510">
        <ele>1226.974</ele>
        <time>2018-12-28T04:36:37Z</time>
      </trkpt>
      <trkpt lat="34.807900" lon="-118.882590">
        <ele>1226.479</ele>
        <time>2018-12-28T04:36:57Z</time>
      </trkpt>
      <trkpt lat="34.808030" lon="-118.882710">
        <ele>1225.558</ele>
        <time>2018-12-28T04:37:17Z</time>
      </trkpt>
      <trkpt lat="34.808160" lon="-118.882830">
        <ele>1225.032</ele>
        <time>2018-12-28T04:37:37Z</time>
      </trkpt>
      <trkpt lat="34.808360" lon="-118.883000">
        <ele>1222.415</ele>
        <time>2018-12-28T04:37:57Z</time>
      </trkpt>
      <trkpt lat="34.808580" lon="-118.883180">
        <ele>1221.649</ele>
        <time>2018-12-28T04:38:17Z</time>
      </trkpt>
      <trkpt lat="34.808800" lon="-118.883350">
        <ele>1221.142</ele>
        <time>2018-12-28T04:38:37Z</time>
      </trkpt>
      <trkpt lat="34.809030" lon="-118.883510">
        <ele>1220.527</ele>
        <time>2018-12-28T04:38:57Z</time>
      </trkpt>
      <trkpt lat="34.809210" lon="-118.883620">
        <ele>1220.268</ele>
        <time>2018-12-28T04:39:17Z</time>
      </trkpt>
      <trkpt lat="34.809440" lon="-118.883750">
        <ele>1217.914</ele>
        <time>2018-12-28T04:39:37Z</time>
      </trkpt>
      <trkpt lat="34.809640" lon="-118.883860">
        <ele>1214.408</ele>
        <time>2018-12-28T04:39:57Z</time>
      </trkpt>
      <trkpt lat="34.809930" lon="-118.883990">
        <ele>1209.885</ele>
        <time>2018-12-28T04:40:17Z</time>
      </trkpt>
      <trkpt lat="34.810090" lon="-118.884070">
        <ele>1209.283</ele>
        <time>2018-12-28T04:40:37Z</time>
      </trkpt>
      <trkpt lat="34.810300" lon="-118.884150">
        <ele>1208.878</ele>
        <time>2018-12-28T04:40:57Z</time>
      </trkpt>
      <trkpt lat="34.810550" lon="-118.884230">
        <ele>1208.737</ele>
        <time>2018-12-28T04:41:17Z</time>
      </trkpt>
      <trkpt lat="34.810700" lon="-118.884280">
        <ele>1208.511</ele>
        <time>2018-12-28T04:41:37Z</time>
      </trkpt>
      <trkpt lat="34.810850" lon="-118.884320">
        <ele>1208.324</ele>
        <time>2018-12-28T04:41:57Z</time>
      </trkpt>
      <trkpt lat="34.811170" lon="-118.884400">
        <ele>1208.338</ele>
        <time>2018-12-28T04:42:17Z</time>
      </trkpt>
      <trkpt lat="34.811530" lon="-118.884470">
        <ele>1206.861</ele>
        <time>2018-12-28T04:42:37Z</time>
      </trkpt>
      <trkpt lat="34.811670" lon="-118.884490">
        <ele>1205.529</ele>
        <time>2018-12-28T04:42:57Z</time>
      </trkpt>
      <trkpt lat="34.811800" lon="-118.884500">
        <ele>1204.300</ele>
        <time>2018-12-28T04:43:17Z</time>
      </trkpt>
      <trkpt lat="34.812030" lon="-118.884520">
        <ele>1204.320</ele>
        <time>2018-12-28T04:43:37Z</time>
      </trkpt>
      <trkpt lat="34.812290" lon="-118.884530">
        <ele>1204.308</ele>
        <time>2018-12-28T04:43:57Z</time>
      </trkpt>
      <trkpt lat="34.812680" lon="-118.884520">
        <ele>1203.575</ele>
        <time>2018-12-28T04:44:17Z</time>
      </trkpt>
      <trkpt lat="34.812830" lon="-118.884510">
        <ele>1202.873</ele>
        <time>2018-12-28T04:44:37Z</time>
      </trkpt>
      <trkpt lat="34.813100" lon="-118.884480">
        <ele>1200.068</ele>
        <time>2018-12-28T04:44:57Z</time>
      </trkpt>
      <trkpt lat="34.813210" lon="-118.884470">
        <ele>1198.417</ele>
        <time>2018-12-28T04:45:17Z</time>
      </trkpt>
      <trkpt lat="34.813630" lon="-118.884390">
        <ele>1195.571</ele>
        <time>2018-12-28T04:45:37Z</time>
      </trkpt>
      <trkpt lat="34.813780" lon="-118.884350">
        <ele>1194.714</ele>
        <time>2018-12-28T04:45:57Z</time>
      </trkpt>
      <trkpt lat="34.813930" lon="-118.884310">
        <ele>1193.438</ele>
        <time>2018-12-28T04:46:17Z</time>
      </trkpt>
      <trkpt lat="34.814170" lon="-118.884250">
        <ele>1190.931</ele>
        <time>2018-12-28T04:46:37Z</time>
      </trkpt>
      <trkpt lat="34.814440" lon="-118.884150">
        <ele>1188.284</ele>
        <time>2018-12-28T04:46:57Z</time>
      </trkpt>
      <trkpt lat="34.814600" lon="-118.884090">
        <ele>1186.907</ele>
        <time>2018-12-28T04:47:17Z</time>
      </trkpt>
      <trkpt lat="34.814780" lon="-118.884020">
        <ele>1186.417</ele>
        <time>2018-12-28T04:47:37Z</time>
      </trkpt>
      <trkpt lat="34.815010" lon="-118.883910">
        <ele>1185.408</ele>
        <time>2018-12-28T04:47:57Z</time>
      </trkpt>
      <trkpt lat="34.815250" lon="-118.883790">
        <ele>1184.531</ele>
        <time>2018-12-28T04:48:17Z</time>
      </trkpt>
      <trkpt lat="34.815510" lon="-118.883640">
        <ele>1183.819</ele>
        <time>2018-12-28T04:48:37Z</time>
      </trkpt>
      <trkpt lat="34.815720" lon="-118.883500">
        <ele>1183.784</ele>
        <time>2018-12-28T04:48:57Z</time>
      </trkpt>
      <trkpt lat="34.815910" lon="-118.883370">
        <ele>1181.273</ele>
        <time>2018-12-28T04:49:17Z</time>
      </trkpt>
      <trkpt lat="34.816070" lon="-118.883250">
        <ele>1178.517</ele>
        <time>2018-12-28T04:49:37Z</time>
      </trkpt>
      <trkpt lat="34.816360" lon="-118.883020">
        <ele>1174.980</ele>
        <time>2018-12-28T04:49:57Z</time>
      </trkpt>
      <trkpt lat="34.816500" lon="-118.882890">
        <ele>1173.734</ele>
        <time>2018-12-28T04:50:17Z</time>
      </trkpt>
      <trkpt lat="34.816670" lon="-118.882740">
        <ele>1172.377</ele>
        <time>2018-12-28T04:50:37Z</time>
      </trkpt>
      <trkpt lat="34.816850" lon="-118.882550">
        <ele>1171.647</ele>
        <time>2018-12-28T04:50:57Z</time>
      </trkpt>
      <trkpt lat="34.816940" lon="-118.882460">
        <ele>1171.429</ele>
        <time>2018-12-28T04:51:17Z</time>
      </trkpt>
      <trkpt lat="34.817470" lon="-118.881920">
        <ele>1168.321</ele>
        <time>2018-12-28T04:51:37Z</time>
      </trkpt>
      <trkpt lat="34.817960" lon="-118.881420">
        <ele>1163.108</ele>
        <time>2018-12-28T04:51:57Z</time>
      </trkpt>
      <trkpt lat="34.818320" lon="-118.881020">
        <ele>1161.787</ele>
        <time>2018-12-28T04:52:17Z</time>
      </trkpt>
      <trkpt lat="34.818680" lon="-118.880660">
        <ele>1161.615</ele>
        <time>2018-12-28T04:52:37Z</time>
      </trkpt>
      <trkpt lat="34.819110" lon="-118.880220">
        <ele>1160.850</ele>
        <time>2018-12-28T04:52:57Z</time>
      </trkpt>
      <trkpt lat="34.819440" lon="-118.879870">
        <ele>1159.179</ele>
        <time>2018-12-28T04:53:17Z</time>
      </trkpt>
      <trkpt lat="34.819960" lon="-118.879340">
        <ele>1150.323</ele>
        <time>2018-12-28T04:53:37Z</time>
      </trkpt>
      <trkpt lat="34.820700" lon="-118.878570">
        <ele>1147.936</ele>
        <time>2018-12-28T04:53:57Z</time>
      </trkpt>
      <trkpt lat="34.820810" lon="-118.878450">
        <ele>1147.860</ele>
        <time>2018-12-28T04:54:17Z</time>
      </trkpt>
      <trkpt lat="34.821650" lon="-118.877580">
        <ele>1140.913</ele>
        <time>2018-12-28T04:54:37Z</time>
      </trkpt>
      <trkpt lat="34.822330" lon="-118.876850">
        <ele>1137.446</ele>
        <time>2018-12-28T04:54:57Z</time>
      </trkpt>
      <trkpt lat="34.822830" lon="-118.876330">
        <ele>1135.888</ele>
        <time>2018-12-28T04:55:17Z</time>
      </trkpt>
      <trkpt lat="34.823030" lon="-118.876120">
        <ele>1134.916</ele>
        <time>2018-12-28T04:55:37Z</time>
      </trkpt>
      <trkpt lat="34.823530" lon="-118.875610">
        <ele>1131.508</ele>
        <time>2018-12-28T04:55:57Z</time>
      </trkpt>
      <trkpt lat="34.823840" lon="-118.875280">
        <ele>1128.857</ele>
        <time>2018-12-28T04:56:17Z</time>
      </trkpt>
      <trkpt lat="34.824840" lon="-118.874250">
        <ele>1125.025</ele>
        <time>2018-12-28T04:56:37Z</time>
      </trkpt>
      <trkpt lat="34.825150" lon="-118.873940">
        <ele>1124.250</ele>
        <time>2018-12-28T04:56:57Z</time>
      </trkpt>
      <trkpt lat="34.825280" lon="-118.873810">
        <ele>1123.559</ele>
        <time>2018-12-28T04:57:17Z</time>
      </trkpt>
      <trkpt lat="34.826240" lon="-118.872790">
        <ele>1119.993</ele>
        <time>2018-12-28T04:57:37Z</time>
      </trkpt>
      <trkpt lat="34.826800" lon="-118.872220">
        <ele>1117.956</ele>
        <time>2018-12-28T04:57:57Z</time>
      </trkpt>
      <trkpt lat="34.828100" lon="-118.870870">
        <ele>1111.710</ele>
        <time>2018-12-28T04:58:17Z</time>
      </trkpt>
      <trkpt lat="34.828430" lon="-118.870510">
        <ele>1111.383</ele>
        <time>2018-12-28T04:58:37Z</time>
      </trkpt>
      <trkpt lat="34.828940" lon="-118.869980">
        <ele>1110.243</ele>
        <time>2018-12-28T04:58:57Z</time>
      </trkpt>
      <trkpt lat="34.829820" lon="-118.869080">
        <ele>1107.964</ele>
        <time>2018-12-28T04:59:17Z</time>
      </trkpt>
      <trkpt lat="34.831160" lon="-118.867680">
        <ele>1107.010</ele>
        <time>2018-12-28T04:59:37Z</time>
      </trkpt>
      <trkpt lat="34.831300" lon="-118.867530">
        <ele>1107.108</ele>
        <time>2018-12-28T04:59:57Z</time>
      </trkpt>
      <trkpt lat="34.832310" lon="-118.866490">
        <ele>1101.287</ele>
        <time>2018-12-28T05:00:17Z</time>
      </trkpt>
      <trkpt lat="34.832830" lon="-118.865950">
        <ele>1096.935</ele>
        <time>2018-12-28T05:00:37Z</time>
      </trkpt>
      <trkpt lat="34.833370" lon="-118.865400">
        <ele>1094.610</ele>
        <time>2018-12-28T05:00:57Z</time>
      </trkpt>
      <trkpt lat="34.834460" lon="-118.864260">
        <ele>1089.139</ele>
        <time>2018-12-28T05:01:17Z</time>
      </trkpt>
      <trkpt lat="34.834730" lon="-118.864020">
        <ele>1087.583</ele>
        <time>2018-12-28T05:01:37Z</time>
      </trkpt>
      <trkpt lat="34.834910" lon="-118.863870">
        <ele>1086.796</ele>
        <time>2018-12-28T05:01:57Z</time>
      </trkpt>
      <trkpt lat="34.835140" lon="-118.863700">
        <ele>1086.530</ele>
        <time>2018-12-28T05:02:17Z</time>
      </trkpt>
      <trkpt lat="34.835460" lon="-118.863490">
        <ele>1085.933</ele>
        <time>2018-12-28T05:02:37Z</time>
      </trkpt>
      <trkpt lat="34.835720" lon="-118.863340">
        <ele>1085.244</ele>
        <time>2018-12-28T05:02:57Z</time>
      </trkpt>
      <trkpt lat="34.835740" lon="-118.863330">
        <ele>1085.105</ele>
        <time>2018-12-28T05:03:17Z</time>
      </trkpt>
      <trkpt lat="34.835930" lon="-118.863230">
        <ele>1084.415</ele>
        <time>2018-12-28T05:03:37Z</time>
      </trkpt>
      <trkpt lat="34.836140" lon="-118.863140">
        <ele>1083.608</ele>
        <time>2018-12-28T05:03:57Z</time>
      </trkpt>
      <trkpt lat="34.836360" lon="-118.863050">
        <ele>1082.967</ele>
        <time>2018-12-28T05:04:17Z</time>
      </trkpt>
      <trkpt lat="34.836510" lon="-118.863000">
        <ele>1082.525</ele>
        <time>2018-12-28T05:04:37Z</time>
      </trkpt>
      <trkpt lat="34.836730" lon="-118.862930">
        <ele>1081.990</ele>
        <time>2018-12-28T05:04:57Z</time>
      </trkpt>
      <trkpt lat="34.836990" lon="-118.862870">
        <ele>1081.139</ele>
        <time>2018-12-28T05:05:17Z</time>
      </trkpt>
      <trkpt lat="34.837130" lon="-118.862840">
        <ele>1080.773</ele>
        <time>2018-12-28T05:05:37Z</time>
      </trkpt>
      <trkpt lat="34.837270" lon="-118.862820">
        <ele>1080.446</ele>
        <time>2018-12-28T05:05:57Z</time>
      </trkpt>
      <trkpt lat="34.837470" lon="-118.862790">
        <ele>1079.720</ele>
        <time>2018-12-28T05:06:17Z</time>
      </trkpt>
      <trkpt lat="34.837630" lon="-118.862780">
        <ele>1079.163</ele>
        <time>2018-12-28T05:06:37Z</time>
      </trkpt>
      <trkpt lat="34.837860" lon="-118.862770">
        <ele>1078.437</ele>
        <time>2018-12-28T05:06:57Z</time>
      </trkpt>
      <trkpt lat="34.838080" lon="-118.862770">
        <ele>1077.349</ele>
        <time>2018-12-28T05:07:17Z</time>
      </trkpt>
      <trkpt lat="34.838220" lon="-118.862770">
        <ele>1076.513</ele>
        <time>2018-12-28T05:07:37Z</time>
      </trkpt>
      <trkpt lat="34.838330" lon="-118.862780">
        <ele>1075.908</ele>
        <time>2018-12-28T05:07:57Z</time>
      </trkpt>
      <trkpt lat="34.838470" lon="-118.862790">
        <ele>1075.126</ele>
        <time>2018-12-28T05:08:17Z</time>
      </trkpt>
      <trkpt lat="34.838670" lon="-118.862820">
        <ele>1074.364</ele>
        <time>2018-12-28T05:08:37Z</time>
      </trkpt>
      <trkpt lat="34.838850" lon="-118.862850">
        <ele>1073.839</ele>
        <time>2018-12-28T05:08:57Z</time>
      </trkpt>
      <trkpt lat="34.839040" lon="-118.862890">
        <ele>1073.328</ele>
        <time>2018-12-28T05:09:17Z</time>
      </trkpt>
      <trkpt lat="34.839160" lon="-118.862920">
        <ele>1073.472</ele>
        <time>2018-12-28T05:09:37Z</time>
      </trkpt>
      <trkpt lat="34.839310" lon="-118.862960">
        <ele>1073.325</ele>
        <time>2018-12-28T05:09:57Z</time>
      </trkpt>
      <trkpt lat="34.839520" lon="-118.863030">
        <ele>1072.939</ele>
        <time>2018-12-28T05:10:17Z</time>
      </trkpt>
      <trkpt lat="34.839650" lon="-118.863080">
        <ele>1072.562</ele>
        <time>2018-12-28T05:10:37Z</time>
      </trkpt>
      <trkpt lat="34.839770" lon="-118.863130">
        <ele>1072.168</ele>
        <time>2018-12-28T05:10:57Z</time>
      </trkpt>
      <trkpt lat="34.839910" lon="-118.863190">
        <ele>1071.542</ele>
        <time>2018-12-28T05:11:17Z</time>
      </trkpt>
      <trkpt lat="34.840060" lon="-118.863260">
        <ele>1070.826</ele>
        <time>2018-12-28T05:11:37Z</time>
      </trkpt>
      <trkpt lat="34.840180" lon="-118.863330">
        <ele>1070.208</ele>
        <time>2018-12-28T05:11:57Z</time>
      </trkpt>
      <trkpt lat="34.840330" lon="-118.863420">
        <ele>1069.049</ele>
        <time>2018-12-28T05:12:17Z</time>
      </trkpt>
      <trkpt lat="34.840490" lon="-118.863520">
        <ele>1068.037</ele>
        <time>2018-12-28T05:12:37Z</time>
      </trkpt>
      <trkpt lat="34.840720" lon="-118.863670">
        <ele>1066.542</ele>
        <time>2018-12-28T05:12:57Z</time>
      </trkpt>
      <trkpt lat="34.841520" lon="-118.864230">
        <ele>1062.761</ele>
        <time>2018-12-28T05:13:17Z</time>
      </trkpt>
      <trkpt lat="34.841590" lon="-118.864300">
        <ele>1062.685</ele>
        <time>2018-12-28T05:13:37Z</time>
      </trkpt>
      <trkpt lat="34.842380" lon="-118.864870">
        <ele>1059.328</ele>
        <time>2018-12-28T05:13:57Z</time>
      </trkpt>
      <trkpt lat="34.842970" lon="-118.865310">
        <ele>1057.282</ele>
        <time>2018-12-28T05:14:17Z</time>
      </trkpt>
      <trkpt lat="34.844500" lon="-118.866420">
        <ele>1052.675</ele>
        <time>2018-12-28T05:14:37Z</time>
      </trkpt>
      <trkpt lat="34.844950" lon="-118.866750">
        <ele>1050.825</ele>
        <time>2018-12-28T05:14:57Z</time>
      </trkpt>
      <trkpt lat="34.845270" lon="-118.866980">
        <ele>1050.026</ele>
        <time>2018-12-28T05:15:17Z</time>
      </trkpt>
      <trkpt lat="34.845740" lon="-118.867330">
        <ele>1049.608</ele>
        <time>2018-12-28T05:15:37Z</time>
      </trkpt>
      <trkpt lat="34.846400" lon="-118.867810">
        <ele>1046.808</ele>
        <time>2018-12-28T05:15:57Z</time>
      </trkpt>
      <trkpt lat="34.848950" lon="-118.869680">
        <ele>1038.185</ele>
        <time>2018-12-28T05:16:17Z</time>
      </trkpt>
      <trkpt lat="34.849500" lon="-118.870070">
        <ele>1037.693</ele>
        <time>2018-12-28T05:16:37Z</time>
      </trkpt>
      <trkpt lat="34.850390" lon="-118.870720">
        <ele>1036.048</ele>
        <time>2018-12-28T05:16:57Z</time>
      </trkpt>
      <trkpt lat="34.851260" lon="-118.871360">
        <ele>1033.897</ele>
        <time>2018-12-28T05:17:17Z</time>
      </trkpt>
      <trkpt lat="34.851830" lon="-118.871770">
        <ele>1033.191</ele>
        <time>2018-12-28T05:17:37Z</time>
      </trkpt>
      <trkpt lat="34.852670" lon="-118.872390">
        <ele>1031.484</ele>
        <time>2018-12-28T05:17:57Z</time>
      </trkpt>
      <trkpt lat="34.853160" lon="-118.872750">
        <ele>1032.068</ele>
        <time>2018-12-28T05:18:17Z</time>
      </trkpt>
      <trkpt lat="34.853620" lon="-118.873080">
        <ele>1031.451</ele>
        <time>2018-12-28T05:18:37Z</time>
      </trkpt>
      <trkpt lat="34.853950" lon="-118.873320">
        <ele>1032.543</ele>
        <time>2018-12-28T05:18:57Z</time>
      </trkpt>
      <trkpt lat="34.854390" lon="-118.873640">
        <ele>1033.264</ele>
        <time>2018-12-28T05:19:17Z</time>
      </trkpt>
      <trkpt lat="34.854720" lon="-118.873890">
        <ele>1032.710</ele>
        <time>2018-12-28T05:19:37Z</time>
      </trkpt>
      <trkpt lat="34.855050" lon="-118.874130">
        <ele>1031.408</ele>
        <time>2018-12-28T05:19:57Z</time>
      </trkpt>
      <trkpt lat="34.855490" lon="-118.874460">
        <ele>1028.877</ele>
        <time>2018-12-28T05:20:17Z</time>
      </trkpt>
      <trkpt lat="34.855820" lon="-118.874700">
        <ele>1027.985</ele>
        <time>2018-12-28T05:20:37Z</time>
      </trkpt>
      <trkpt lat="34.856160" lon="-118.874940">
        <ele>1026.410</ele>
        <time>2018-12-28T05:20:57Z</time>
      </trkpt>
      <trkpt lat="34.856320" lon="-118.875060">
        <ele>1025.649</ele>
        <time>2018-12-28T05:21:17Z</time>
      </trkpt>
      <trkpt lat="34.856490" lon="-118.875180">
        <ele>1024.343</ele>
        <time>2018-12-28T05:21:37Z</time>
      </trkpt>
      <trkpt lat="34.857050" lon="-118.875590">
        <ele>1021.856</ele>
        <time>2018-12-28T05:21:57Z</time>
      </trkpt>
      <trkpt lat="34.857610" lon="-118.876000">
        <ele>1020.680</ele>
        <time>2018-12-28T05:22:17Z</time>
      </trkpt>
      <trkpt lat="34.858150" lon="-118.876400">
        <ele>1019.513</ele>
        <time>2018-12-28T05:22:37Z</time>
      </trkpt>
      <trkpt lat="34.858510" lon="-118.876660">
        <ele>1019.652</ele>
        <time>2018-12-28T05:22:57Z</time>
      </trkpt>
      <trkpt lat="34.859280" lon="-118.877220">
        <ele>1019.353</ele>
        <time>2018-12-28T05:23:17Z</time>
      </trkpt>
      <trkpt lat="34.859880" lon="-118.877660">
        <ele>1019.808</ele>
        <time>2018-12-28T05:23:37Z</time>
      </trkpt>
      <trkpt lat="34.860340" lon="-118.878000">
        <ele>1020.408</ele>
        <time>2018-12-28T05:23:57Z</time>
      </trkpt>
      <trkpt lat="34.860950" lon="-118.878440">
        <ele>1020.438</ele>
        <time>2018-12-28T05:24:17Z</time>
      </trkpt>
      <trkpt lat="34.861390" lon="-118.878780">
        <ele>1019.626</ele>
        <time>2018-12-28T05:24:37Z</time>
      </trkpt>
      <trkpt lat="34.861730" lon="-118.879050">
        <ele>1019.081</ele>
        <time>2018-12-28T05:24:57Z</time>
      </trkpt>
      <trkpt lat="34.862000" lon="-118.879270">
        <ele>1018.690</ele>
        <time>2018-12-28T05:25:17Z</time>
      </trkpt>
      <trkpt lat="34.862280" lon="-118.879510">
        <ele>1017.464</ele>
        <time>2018-12-28T05:25:37Z</time>
      </trkpt>
      <trkpt lat="34.862450" lon="-118.879650">
        <ele>1016.557</ele>
        <time>2018-12-28T05:25:57Z</time>
      </trkpt>
      <trkpt lat="34.862690" lon="-118.879860">
        <ele>1015.241</ele>
        <time>2018-12-28T05:26:17Z</time>
      </trkpt>
      <trkpt lat="34.863080" lon="-118.880210">
        <ele>1013.854</ele>
        <time>2018-12-28T05:26:37Z</time>
      </trkpt>
      <trkpt lat="34.863360" lon="-118.880470">
        <ele>1013.469</ele>
        <time>2018-12-28T05:26:57Z</time>
      </trkpt>
      <trkpt lat="34.863720" lon="-118.880810">
        <ele>1012.804</ele>
        <time>2018-12-28T05:27:17Z</time>
      </trkpt>
      <trkpt lat="34.864190" lon="-118.881280">
        <ele>1007.224</ele>
        <time>2018-12-28T05:27:37Z</time>
      </trkpt>
      <trkpt lat="34.864930" lon="-118.882040">
        <ele>1002.108</ele>
        <time>2018-12-28T05:27:57Z</time>
      </trkpt>
      <trkpt lat="34.865720" lon="-118.882850">
        <ele>999.499</ele>
        <time>2018-12-28T05:28:17Z</time>
      </trkpt>
      <trkpt lat="34.866350" lon="-118.883490">
        <ele>995.777</ele>
        <time>2018-12-28T05:28:37Z</time>
      </trkpt>
      <trkpt lat="34.866850" lon="-118.883990">
        <ele>991.372</ele>
        <time>2018-12-28T05:28:57Z</time>
      </trkpt>
      <trkpt lat="34.867590" lon="-118.884750">
        <ele>988.811</ele>
        <time>2018-12-28T05:29:17Z</time>
      </trkpt>
      <trkpt lat="34.868330" lon="-118.885500">
        <ele>986.385</ele>
        <time>2018-12-28T05:29:37Z</time>
      </trkpt>
      <trkpt lat="34.868730" lon="-118.885910">
        <ele>984.558</ele>
        <time>2018-12-28T05:29:57Z</time>
      </trkpt>
      <trkpt lat="34.869220" lon="-118.886410">
        <ele>981.672</ele>
        <time>2018-12-28T05:30:17Z</time>
      </trkpt>
      <trkpt lat="34.869610" lon="-118.886810">
        <ele>982.155</ele>
        <time>2018-12-28T05:30:37Z</time>
      </trkpt>
      <trkpt lat="34.870020" lon="-118.887220">
        <ele>982.678</ele>
        <time>2018-12-28T05:30:57Z</time>
      </trkpt>
      <trkpt lat="34.870310" lon="-118.887520">
        <ele>984.033</ele>
        <time>2018-12-28T05:31:17Z</time>
      </trkpt>
      <trkpt lat="34.870610" lon="-118.887830">
        <ele>983.826</ele>
        <time>2018-12-28T05:31:37Z</time>
      </trkpt>
      <trkpt lat="34.870840" lon="-118.888060">
        <ele>983.508</ele>
        <time>2018-12-28T05:31:57Z</time>
      </trkpt>
      <trkpt lat="34.871480" lon="-118.888720">
        <ele>982.530</ele>
        <time>2018-12-28T05:32:17Z</time>
      </trkpt>
      <trkpt lat="34.872010" lon="-118.889260">
        <ele>982.688</ele>
        <time>2018-12-28T05:32:37Z</time>
      </trkpt>
      <trkpt lat="34.872420" lon="-118.889670">
        <ele>982.173</ele>
        <time>2018-12-28T05:32:57Z</time>
      </trkpt>
      <trkpt lat="34.872810" lon="-118.890070">
        <ele>979.472</ele>
        <time>2018-12-28T05:33:17Z</time>
      </trkpt>
      <trkpt lat="34.873270" lon="-118.890540">
        <ele>975.786</ele>
        <time>2018-12-28T05:33:37Z</time>
      </trkpt>
      <trkpt lat="34.873790" lon="-118.891070">
        <ele>972.079</ele>
        <time>2018-12-28T05:33:57Z</time>
      </trkpt>
      <trkpt lat="34.874210" lon="-118.891500">
        <ele>970.443</ele>
        <time>2018-12-28T05:34:17Z</time>
      </trkpt>
      <trkpt lat="34.874600" lon="-118.891890">
        <ele>970.686</ele>
        <time>2018-12-28T05:34:37Z</time>
      </trkpt>
      <trkpt lat="34.874870" lon="-118.892170">
        <ele>971.848</ele>
        <time>2018-12-28T05:34:57Z</time>
      </trkpt>
      <trkpt lat="34.875270" lon="-118.892600">
        <ele>972.861</ele>
        <time>2018-12-28T05:35:17Z</time>
      </trkpt>
      <trkpt lat="34.875640" lon="-118.893020">
        <ele>971.417</ele>
        <time>2018-12-28T05:35:37Z</time>
      </trkpt>
      <trkpt lat="34.875730" lon="-118.893130">
        <ele>970.508</ele>
        <time>2018-12-28T05:35:57Z</time>
      </trkpt>
      <trkpt lat="34.875830" lon="-118.893240">
        <ele>969.047</ele>
        <time>2018-12-28T05:36:17Z</time>
      </trkpt>
      <trkpt lat="34.875960" lon="-118.893400">
        <ele>967.425</ele>
        <time>2018-12-28T05:36:37Z</time>
      </trkpt>
      <trkpt lat="34.876150" lon="-118.893640">
        <ele>965.140</ele>
        <time>2018-12-28T05:36:57Z</time>
      </trkpt>
      <trkpt lat="34.876310" lon="-118.893850">
        <ele>963.519</ele>
        <time>2018-12-28T05:37:17Z</time>
      </trkpt>
      <trkpt lat="34.876450" lon="-118.894040">
        <ele>962.433</ele>
        <time>2018-12-28T05:37:37Z</time>
      </trkpt>
      <trkpt lat="34.876560" lon="-118.894190">
        <ele>961.896</ele>
        <time>2018-12-28T05:37:57Z</time>
      </trkpt>
      <trkpt lat="34.876710" lon="-118.894390">
        <ele>961.550</ele>
        <time>2018-12-28T05:38:17Z</time>
      </trkpt>
      <trkpt lat="34.876910" lon="-118.894670">
        <ele>960.213</ele>
        <time>2018-12-28T05:38:37Z</time>
      </trkpt>
      <trkpt lat="34.877060" lon="-118.894880">
        <ele>959.194</ele>
        <time>2018-12-28T05:38:57Z</time>
      </trkpt>
      <trkpt lat="34.877390" lon="-118.895350">
        <ele>956.557</ele>
        <time>2018-12-28T05:39:17Z</time>
      </trkpt>
      <trkpt lat="34.877750" lon="-118.895840">
        <ele>951.822</ele>
        <time>2018-12-28T05:39:37Z</time>
      </trkpt>
      <trkpt lat="34.878010" lon="-118.896210">
        <ele>949.508</ele>
        <time>2018-12-28T05:39:57Z</time>
      </trkpt>
      <trkpt lat="34.878280" lon="-118.896580">
        <ele>948.612</ele>
        <time>2018-12-28T05:40:17Z</time>
      </trkpt>
      <trkpt lat="34.878550" lon="-118.896920">
        <ele>948.140</ele>
        <time>2018-12-28T05:40:37Z</time>
      </trkpt>
      <trkpt lat="34.878740" lon="-118.897150">
        <ele>948.055</ele>
        <time>2018-12-28T05:40:57Z</time>
      </trkpt>
      <trkpt lat="34.878950" lon="-118.897370">
        <ele>948.034</ele>
        <time>2018-12-28T05:41:17Z</time>
      </trkpt>
      <trkpt lat="34.879050" lon="-118.897470">
        <ele>947.658</ele>
        <time>2018-12-28T05:41:37Z</time>
      </trkpt>
      <trkpt lat="34.879150" lon="-118.897580">
        <ele>946.671</ele>
        <time>2018-12-28T05:41:57Z</time>
      </trkpt>
      <trkpt lat="34.879260" lon="-118.897680">
        <ele>945.535</ele>
        <time>2018-12-28T05:42:17Z</time>
      </trkpt>
      <trkpt lat="34.879470" lon="-118.897880">
        <ele>943.438</ele>
        <time>2018-12-28T05:42:37Z</time>
      </trkpt>
      <trkpt lat="34.879580" lon="-118.897980">
        <ele>942.819</ele>
        <time>2018-12-28T05:42:57Z</time>
      </trkpt>
      <trkpt lat="34.879690" lon="-118.898070">
        <ele>941.409</ele>
        <time>2018-12-28T05:43:17Z</time>
      </trkpt>
      <trkpt lat="34.879800" lon="-118.898160">
        <ele>940.619</ele>
        <time>2018-12-28T05:43:37Z</time>
      </trkpt>
      <trkpt lat="34.879910" lon="-118.898250">
        <ele>938.308</ele>
        <time>2018-12-28T05:43:57Z</time>
      </trkpt>
      <trkpt lat="34.880040" lon="-118.898350">
        <ele>935.144</ele>
        <time>2018-12-28T05:44:17Z</time>
      </trkpt>
      <trkpt lat="34.880260" lon="-118.898500">
        <ele>933.142</ele>
        <time>2018-12-28T05:44:37Z</time>
      </trkpt>
      <trkpt lat="34.880490" lon="-118.898650">
        <ele>932.197</ele>
        <time>2018-12-28T05:44:57Z</time>
      </trkpt>
      <trkpt lat="34.880570" lon="-118.898700">
        <ele>931.876</ele>
        <time>2018-12-28T05:45:17Z</time>
      </trkpt>
      <trkpt lat="34.880670" lon="-118.898770">
        <ele>931.160</ele>
        <time>2018-12-28T05:45:37Z</time>
      </trkpt>
      <trkpt lat="34.880840" lon="-118.898870">
        <ele>930.843</ele>
        <time>2018-12-28T05:45:57Z</time>
      </trkpt>
      <trkpt lat="34.881090" lon="-118.899000">
        <ele>930.967</ele>
        <time>2018-12-28T05:46:17Z</time>
      </trkpt>
      <trkpt lat="34.881250" lon="-118.899080">
        <ele>931.220</ele>
        <time>2018-12-28T05:46:37Z</time>
      </trkpt>
      <trkpt lat="34.881470" lon="-118.899190">
        <ele>930.436</ele>
        <time>2018-12-28T05:46:57Z</time>
      </trkpt>
      <trkpt lat="34.881820" lon="-118.899350">
        <ele>927.117</ele>
        <time>2018-12-28T05:47:17Z</time>
      </trkpt>
      <trkpt lat="34.881960" lon="-118.899420">
        <ele>927.218</ele>
        <time>2018-12-28T05:47:37Z</time>
      </trkpt>
      <trkpt lat="34.882220" lon="-118.899540">
        <ele>925.708</ele>
        <time>2018-12-28T05:47:57Z</time>
      </trkpt>
      <trkpt lat="34.882460" lon="-118.899660">
        <ele>922.886</ele>
        <time>2018-12-28T05:48:17Z</time>
      </trkpt>
      <trkpt lat="34.882840" lon="-118.899840">
        <ele>920.234</ele>
        <time>2018-12-28T05:48:37Z</time>
      </trkpt>
      <trkpt lat="34.883200" lon="-118.900020">
        <ele>915.019</ele>
        <time>2018-12-28T05:48:57Z</time>
      </trkpt>
      <trkpt lat="34.883320" lon="-118.900090">
        <ele>914.888</ele>
        <time>2018-12-28T05:49:17Z</time>
      </trkpt>
      <trkpt lat="34.883450" lon="-118.900170">
        <ele>912.892</ele>
        <time>2018-12-28T05:49:37Z</time>
      </trkpt>
      <trkpt lat="34.883560" lon="-118.900230">
        <ele>912.775</ele>
        <time>2018-12-28T05:49:57Z</time>
      </trkpt>
      <trkpt lat="34.883680" lon="-118.900310">
        <ele>912.499</ele>
        <time>2018-12-28T05:50:17Z</time>
      </trkpt>
      <trkpt lat="34.883800" lon="-118.900390">
        <ele>912.062</ele>
        <time>2018-12-28T05:50:37Z</time>
      </trkpt>
      <trkpt lat="34.883910" lon="-118.900470">
        <ele>911.617</ele>
        <time>2018-12-28T05:50:57Z</time>
      </trkpt>
      <trkpt lat="34.884030" lon="-118.900560">
        <ele>911.287</ele>
        <time>2018-12-28T05:51:17Z</time>
      </trkpt>
      <trkpt lat="34.884200" lon="-118.900690">
        <ele>910.615</ele>
        <time>2018-12-28T05:51:37Z</time>
      </trkpt>
      <trkpt lat="34.884310" lon="-118.900780">
        <ele>910.308</ele>
        <time>2018-12-28T05:51:57Z</time>
      </trkpt>
      <trkpt lat="34.884470" lon="-118.900920">
        <ele>909.564</ele>
        <time>2018-12-28T05:52:17Z</time>
      </trkpt>
      <trkpt lat="34.884600" lon="-118.901040">
        <ele>908.522</ele>
        <time>2018-12-28T05:52:37Z</time>
      </trkpt>
      <trkpt lat="34.884680" lon="-118.901120">
        <ele>907.777</ele>
        <time>2018-12-28T05:52:57Z</time>
      </trkpt>
      <trkpt lat="34.884760" lon="-118.901200">
        <ele>906.756</ele>
        <time>2018-12-28T05:53:17Z</time>
      </trkpt>
      <trkpt lat="34.884860" lon="-118.901300">
        <ele>905.610</ele>
        <time>2018-12-28T05:53:37Z</time>
      </trkpt>
      <trkpt lat="34.884960" lon="-118.901400">
        <ele>903.793</ele>
        <time>2018-12-28T05:53:57Z</time>
      </trkpt>
      <trkpt lat="34.885080" lon="-118.901530">
        <ele>902.847</ele>
        <time>2018-12-28T05:54:17Z</time>
      </trkpt>
      <trkpt lat="34.885130" lon="-118.901590">
        <ele>901.810</ele>
        <time>2018-12-28T05:54:37Z</time>
      </trkpt>
      <trkpt lat="34.885200" lon="-118.901690">
        <ele>899.962</ele>
        <time>2018-12-28T05:54:57Z</time>
      </trkpt>
      <trkpt lat="34.885310" lon="-118.901820">
        <ele>898.183</ele>
        <time>2018-12-28T05:55:17Z</time>
      </trkpt>
      <trkpt lat="34.885490" lon="-118.902050">
        <ele>896.611</ele>
        <time>2018-12-28T05:55:37Z</time>
      </trkpt>
      <trkpt lat="34.885690" lon="-118.902340">
        <ele>894.908</ele>
        <time>2018-12-28T05:55:57Z</time>
      </trkpt>
      <trkpt lat="34.885820" lon="-118.902560">
        <ele>893.849</ele>
        <time>2018-12-28T05:56:17Z</time>
      </trkpt>
      <trkpt lat="34.886030" lon="-118.902900">
        <ele>891.617</ele>
        <time>2018-12-28T05:56:37Z</time>
      </trkpt>
      <trkpt lat="34.886260" lon="-118.903350">
        <ele>885.512</ele>
        <time>2018-12-28T05:56:57Z</time>
      </trkpt>
      <trkpt lat="34.888720" lon="-118.908320">
        <ele>855.661</ele>
        <time>2018-12-28T05:57:17Z</time>
      </trkpt>
      <trkpt lat="34.888900" lon="-118.908700">
        <ele>853.395</ele>
        <time>2018-12-28T05:57:37Z</time>
      </trkpt>
      <trkpt lat="34.889390" lon="-118.909680">
        <ele>845.028</ele>
        <time>2018-12-28T05:57:57Z</time>
      </trkpt>
      <trkpt lat="34.890140" lon="-118.911190">
        <ele>832.112</ele>
        <time>2018-12-28T05:58:17Z</time>
      </trkpt>
      <trkpt lat="34.890600" lon="-118.912000">
        <ele>830.645</ele>
        <time>2018-12-28T05:58:37Z</time>
      </trkpt>
      <trkpt lat="34.890760" lon="-118.912280">
        <ele>828.979</ele>
        <time>2018-12-28T05:58:57Z</time>
      </trkpt>
      <trkpt lat="34.891010" lon="-118.912670">
        <ele>825.205</ele>
        <time>2018-12-28T05:59:17Z</time>
      </trkpt>
      <trkpt lat="34.891320" lon="-118.913150">
        <ele>824.025</ele>
        <time>2018-12-28T05:59:37Z</time>
      </trkpt>
      <trkpt lat="34.893170" lon="-118.915930">
        <ele>806.308</ele>
        <time>2018-12-28T05:59:57Z</time>
      </trkpt>
      <trkpt lat="34.894570" lon="-118.918000">
        <ele>787.140</ele>
        <time>2018-12-28T06:00:17Z</time>
      </trkpt>
      <trkpt lat="34.895300" lon="-118.919100">
        <ele>781.938</ele>
        <time>2018-12-28T06:00:37Z</time>
      </trkpt>
      <trkpt lat="34.895900" lon="-118.919910">
        <ele>771.733</ele>
        <time>2018-12-28T06:00:57Z</time>
      </trkpt>
      <trkpt lat="34.896310" lon="-118.920360">
        <ele>769.252</ele>
        <time>2018-12-28T06:01:17Z</time>
      </trkpt>
      <trkpt lat="34.896760" lon="-118.920770">
        <ele>765.666</ele>
        <time>2018-12-28T06:01:37Z</time>
      </trkpt>
      <trkpt lat="34.897190" lon="-118.921120">
        <ele>762.539</ele>
        <time>2018-12-28T06:01:57Z</time>
      </trkpt>
      <trkpt lat="34.897440" lon="-118.921310">
        <ele>760.753</ele>
        <time>2018-12-28T06:02:17Z</time>
      </trkpt>
      <trkpt lat="34.897800" lon="-118.921550">
        <ele>757.686</ele>
        <time>2018-12-28T06:02:37Z</time>
      </trkpt>
      <trkpt lat="34.898290" lon="-118.921850">
        <ele>754.044</ele>
        <time>2018-12-28T06:02:57Z</time>
      </trkpt>
      <trkpt lat="34.898820" lon="-118.922110">
        <ele>749.005</ele>
        <time>2018-12-28T06:03:17Z</time>
      </trkpt>
      <trkpt lat="34.899350" lon="-118.922310">
        <ele>746.615</ele>
        <time>2018-12-28T06:03:37Z</time>
      </trkpt>
      <trkpt lat="34.899830" lon="-118.922460">
        <ele>744.008</ele>
        <time>2018-12-28T06:03:57Z</time>
      </trkpt>
      <trkpt lat="34.900800" lon="-118.922660">
        <ele>738.387</ele>
        <time>2018-12-28T06:04:17Z</time>
      </trkpt>
      <trkpt lat="34.902210" lon="-118.922910">
        <ele>726.545</ele>
        <time>2018-12-28T06:04:37Z</time>
      </trkpt>
      <trkpt lat="34.903320" lon="-118.923090">
        <ele>721.740</ele>
        <time>2018-12-28T06:04:57Z</time>
      </trkpt>
      <trkpt lat="34.904110" lon="-118.923230">
        <ele>714.939</ele>
        <time>2018-12-28T06:05:17Z</time>
      </trkpt>
      <trkpt lat="34.904950" lon="-118.923380">
        <ele>710.413</ele>
        <time>2018-12-28T06:05:37Z</time>
      </trkpt>
      <trkpt lat="34.905910" lon="-118.923550">
        <ele>701.846</ele>
        <time>2018-12-28T06:05:57Z</time>
      </trkpt>
      <trkpt lat="34.906380" lon="-118.923640">
        <ele>698.930</ele>
        <time>2018-12-28T06:06:17Z</time>
      </trkpt>
      <trkpt lat="34.906930" lon="-118.923710">
        <ele>695.743</ele>
        <time>2018-12-28T06:06:37Z</time>
      </trkpt>
      <trkpt lat="34.907700" lon="-118.923740">
        <ele>685.922</ele>
        <time>2018-12-28T06:06:57Z</time>
      </trkpt>
      <trkpt lat="34.908270" lon="-118.923700">
        <ele>684.562</ele>
        <time>2018-12-28T06:07:17Z</time>
      </trkpt>
      <trkpt lat="34.909150" lon="-118.923600">
        <ele>678.008</ele>
        <time>2018-12-28T06:07:37Z</time>
      </trkpt>
      <trkpt lat="34.910310" lon="-118.923450">
        <ele>673.008</ele>
        <time>2018-12-28T06:07:57Z</time>
      </trkpt>
      <trkpt lat="34.911300" lon="-118.923310">
        <ele>662.735</ele>
        <time>2018-12-28T06:08:17Z</time>
      </trkpt>
      <trkpt lat="34.911990" lon="-118.923240">
        <ele>659.413</ele>
        <time>2018-12-28T06:08:37Z</time>
      </trkpt>
      <trkpt lat="34.912430" lon="-118.923260">
        <ele>658.758</ele>
        <time>2018-12-28T06:08:57Z</time>
      </trkpt>
      <trkpt lat="34.912850" lon="-118.923280">
        <ele>655.697</ele>
        <time>2018-12-28T06:09:17Z</time>
      </trkpt>
      <trkpt lat="34.913410" lon="-118.923380">
        <ele>652.031</ele>
        <time>2018-12-28T06:09:37Z</time>
      </trkpt>
      <trkpt lat="34.914020" lon="-118.923520">
        <ele>648.594</ele>
        <time>2018-12-28T06:09:57Z</time>
      </trkpt>
      <trkpt lat="34.914870" lon="-118.923710">
        <ele>638.188</ele>
        <time>2018-12-28T06:10:17Z</time>
      </trkpt>
      <trkpt lat="34.915700" lon="-118.923870">
        <ele>636.831</ele>
        <time>2018-12-28T06:10:37Z</time>
      </trkpt>
      <trkpt lat="34.916490" lon="-118.923990">
        <ele>635.471</ele>
        <time>2018-12-28T06:10:57Z</time>
      </trkpt>
      <trkpt lat="34.917200" lon="-118.924040">
        <ele>624.141</ele>
        <time>2018-12-28T06:11:17Z</time>
      </trkpt>
      <trkpt lat="34.917220" lon="-118.924040">
        <ele>624.015</ele>
        <time>2018-12-28T06:11:37Z</time>
      </trkpt>
      <trkpt lat="34.917440" lon="-118.924050">
        <ele>623.408</ele>
        <time>2018-12-28T06:11:57Z</time>
      </trkpt>
      <trkpt lat="34.917890" lon="-118.924050">
        <ele>623.010</ele>
        <time>2018-12-28T06:12:17Z</time>
      </trkpt>
      <trkpt lat="34.918220" lon="-118.924040">
        <ele>622.788</ele>
        <time>2018-12-28T06:12:37Z</time>
      </trkpt>
      <trkpt lat="34.919070" lon="-118.923970">
        <ele>618.253</ele>
        <time>2018-12-28T06:12:57Z</time>
      </trkpt>
      <trkpt lat="34.919600" lon="-118.923890">
        <ele>617.942</ele>
        <time>2018-12-28T06:13:17Z</time>
      </trkpt>
      <trkpt lat="34.920200" lon="-118.923770">
        <ele>610.696</ele>
        <time>2018-12-28T06:13:37Z</time>
      </trkpt>
      <trkpt lat="34.920470" lon="-118.923700">
        <ele>611.089</ele>
        <time>2018-12-28T06:13:57Z</time>
      </trkpt>
      <trkpt lat="34.921080" lon="-118.923540">
        <ele>610.033</ele>
        <time>2018-12-28T06:14:17Z</time>
      </trkpt>
      <trkpt lat="34.921560" lon="-118.923390">
        <ele>607.296</ele>
        <time>2018-12-28T06:14:37Z</time>
      </trkpt>
      <trkpt lat="34.922070" lon="-118.923220">
        <ele>598.218</ele>
        <time>2018-12-28T06:14:57Z</time>
      </trkpt>
      <trkpt lat="34.922150" lon="-118.923200">
        <ele>598.198</ele>
        <time>2018-12-28T06:15:17Z</time>
      </trkpt>
      <trkpt lat="34.923210" lon="-118.922840">
        <ele>597.917</ele>
        <time>2018-12-28T06:15:37Z</time>
      </trkpt>
      <trkpt lat="34.923750" lon="-118.922670">
        <ele>586.108</ele>
        <time>2018-12-28T06:15:57Z</time>
      </trkpt>
      <trkpt lat="34.924380" lon="-118.922470">
        <ele>579.434</ele>
        <time>2018-12-28T06:16:17Z</time>
      </trkpt>
      <trkpt lat="34.924800" lon="-118.922370">
        <ele>581.972</ele>
        <time>2018-12-28T06:16:37Z</time>
      </trkpt>
      <trkpt lat="34.925230" lon="-118.922290">
        <ele>583.117</ele>
        <time>2018-12-28T06:16:57Z</time>
      </trkpt>
      <trkpt lat="34.925840" lon="-118.922230">
        <ele>574.086</ele>
        <time>2018-12-28T06:17:17Z</time>
      </trkpt>
      <trkpt lat="34.926250" lon="-118.922210">
        <ele>573.680</ele>
        <time>2018-12-28T06:17:37Z</time>
      </trkpt>
      <trkpt lat="34.926630" lon="-118.922210">
        <ele>570.483</ele>
        <time>2018-12-28T06:17:57Z</time>
      </trkpt>
      <trkpt lat="34.927080" lon="-118.922260">
        <ele>569.137</ele>
        <time>2018-12-28T06:18:17Z</time>
      </trkpt>
      <trkpt lat="34.928120" lon="-118.922480">
        <ele>561.630</ele>
        <time>2018-12-28T06:18:37Z</time>
      </trkpt>
      <trkpt lat="34.929050" lon="-118.922820">
        <ele>549.542</ele>
        <time>2018-12-28T06:18:57Z</time>
      </trkpt>
      <trkpt lat="34.929460" lon="-118.923000">
        <ele>543.122</ele>
        <time>2018-12-28T06:19:17Z</time>
      </trkpt>
      <trkpt lat="34.930040" lon="-118.923350">
        <ele>541.714</ele>
        <time>2018-12-28T06:19:37Z</time>
      </trkpt>
      <trkpt lat="34.930330" lon="-118.923530">
        <ele>539.208</ele>
        <time>2018-12-28T06:19:57Z</time>
      </trkpt>
      <trkpt lat="34.931640" lon="-118.924440">
        <ele>526.937</ele>
        <time>2018-12-28T06:20:17Z</time>
      </trkpt>
      <trkpt lat="34.932390" lon="-118.925000">
        <ele>523.675</ele>
        <time>2018-12-28T06:20:37Z</time>
      </trkpt>
      <trkpt lat="34.933670" lon="-118.925830">
        <ele>513.670</ele>
        <time>2018-12-28T06:20:57Z</time>
      </trkpt>
      <trkpt lat="34.934680" lon="-118.926490">
        <ele>501.099</ele>
        <time>2018-12-28T06:21:17Z</time>
      </trkpt>
      <trkpt lat="34.936050" lon="-118.927410">
        <ele>489.463</ele>
        <time>2018-12-28T06:21:37Z</time>
      </trkpt>
      <trkpt lat="34.937180" lon="-118.928220">
        <ele>488.896</ele>
        <time>2018-12-28T06:21:57Z</time>
      </trkpt>
      <trkpt lat="34.937740" lon="-118.928600">
        <ele>482.060</ele>
        <time>2018-12-28T06:22:17Z</time>
      </trkpt>
      <trkpt lat="34.938460" lon="-118.929080">
        <ele>476.873</ele>
        <time>2018-12-28T06:22:37Z</time>
      </trkpt>
      <trkpt lat="34.939080" lon="-118.929520">
        <ele>475.538</ele>
        <time>2018-12-28T06:22:57Z</time>
      </trkpt>
      <trkpt lat="34.939560" lon="-118.929840">
        <ele>468.570</ele>
        <time>2018-12-28T06:23:17Z</time>
      </trkpt>
      <trkpt lat="34.940040" lon="-118.930140">
        <ele>465.017</ele>
        <time>2018-12-28T06:23:37Z</time>
      </trkpt>
      <trkpt lat="34.940240" lon="-118.930260">
        <ele>464.408</ele>
        <time>2018-12-28T06:23:57Z</time>
      </trkpt>
      <trkpt lat="34.940530" lon="-118.930430">
        <ele>464.156</ele>
        <time>2018-12-28T06:24:17Z</time>
      </trkpt>
      <trkpt lat="34.940730" lon="-118.930550">
        <ele>463.254</ele>
        <time>2018-12-28T06:24:37Z</time>
      </trkpt>
      <trkpt lat="34.940980" lon="-118.930670">
        <ele>461.179</ele>
        <time>2018-12-28T06:24:57Z</time>
      </trkpt>
      <trkpt lat="34.941160" lon="-118.930760">
        <ele>459.738</ele>
        <time>2018-12-28T06:25:17Z</time>
      </trkpt>
      <trkpt lat="34.941280" lon="-118.930810">
        <ele>458.962</ele>
        <time>2018-12-28T06:25:37Z</time>
      </trkpt>
      <trkpt lat="34.941390" lon="-118.930860">
        <ele>458.285</ele>
        <time>2018-12-28T06:25:57Z</time>
      </trkpt>
      <trkpt lat="34.941550" lon="-118.930940">
        <ele>457.449</ele>
        <time>2018-12-28T06:26:17Z</time>
      </trkpt>
      <trkpt lat="34.941690" lon="-118.931000">
        <ele>456.992</ele>
        <time>2018-12-28T06:26:37Z</time>
      </trkpt>
      <trkpt lat="34.942050" lon="-118.931140">
        <ele>456.079</ele>
        <time>2018-12-28T06:26:57Z</time>
      </trkpt>
      <trkpt lat="34.942220" lon="-118.931200">
        <ele>455.605</ele>
        <time>2018-12-28T06:27:17Z</time>
      </trkpt>
      <trkpt lat="34.942690" lon="-118.931370">
        <ele>454.625</ele>
        <time>2018-12-28T06:27:37Z</time>
      </trkpt>
      <trkpt lat="34.943070" lon="-118.931490">
        <ele>453.708</ele>
        <time>2018-12-28T06:27:57Z</time>
      </trkpt>
      <trkpt lat="34.943710" lon="-118.931700">
        <ele>453.030</ele>
        <time>2018-12-28T06:28:17Z</time>
      </trkpt>
      <trkpt lat="34.944020" lon="-118.931800">
        <ele>452.968</ele>
        <time>2018-12-28T06:28:37Z</time>
      </trkpt>
      <trkpt lat="34.944220" lon="-118.931860">
        <ele>452.663</ele>
        <time>2018-12-28T06:28:57Z</time>
      </trkpt>
      <trkpt lat="34.944540" lon="-118.931950">
        <ele>452.362</ele>
        <time>2018-12-28T06:29:17Z</time>
      </trkpt>
      <trkpt lat="34.945330" lon="-118.932200">
        <ele>450.356</ele>
        <time>2018-12-28T06:29:37Z</time>
      </trkpt>
      <trkpt lat="34.946400" lon="-118.932540">
        <ele>447.449</ele>
        <time>2018-12-28T06:29:57Z</time>
      </trkpt>
      <trkpt lat="34.947650" lon="-118.932930">
        <ele>444.773</ele>
        <time>2018-12-28T06:30:17Z</time>
      </trkpt>
      <trkpt lat="34.948290" lon="-118.933130">
        <ele>443.576</ele>
        <time>2018-12-28T06:30:37Z</time>
      </trkpt>
      <trkpt lat="34.948960" lon="-118.933340">
        <ele>442.276</ele>
        <time>2018-12-28T06:30:57Z</time>
      </trkpt>
      <trkpt lat="34.949570" lon="-118.933540">
        <ele>440.490</ele>
        <time>2018-12-28T06:31:17Z</time>
      </trkpt>
      <trkpt lat="34.950180" lon="-118.933730">
        <ele>440.019</ele>
        <time>2018-12-28T06:31:37Z</time>
      </trkpt>
      <trkpt lat="34.950860" lon="-118.933950">
        <ele>437.808</ele>
        <time>2018-12-28T06:31:57Z</time>
      </trkpt>
      <trkpt lat="34.951800" lon="-118.934240">
        <ele>435.590</ele>
        <time>2018-12-28T06:32:17Z</time>
      </trkpt>
      <trkpt lat="34.952610" lon="-118.934500">
        <ele>433.518</ele>
        <time>2018-12-28T06:32:37Z</time>
      </trkpt>
      <trkpt lat="34.953670" lon="-118.934840">
        <ele>430.873</ele>
        <time>2018-12-28T06:32:57Z</time>
      </trkpt>
      <trkpt lat="34.954460" lon="-118.935090">
        <ele>429.112</ele>
        <time>2018-12-28T06:33:17Z</time>
      </trkpt>
      <trkpt lat="34.954880" lon="-118.935220">
        <ele>428.766</ele>
        <time>2018-12-28T06:33:37Z</time>
      </trkpt>
      <trkpt lat="34.956140" lon="-118.935620">
        <ele>425.539</ele>
        <time>2018-12-28T06:33:57Z</time>
      </trkpt>
      <trkpt lat="34.957030" lon="-118.935900">
        <ele>423.773</ele>
        <time>2018-12-28T06:34:17Z</time>
      </trkpt>
      <trkpt lat="34.958060" lon="-118.936220">
        <ele>421.376</ele>
        <time>2018-12-28T06:34:37Z</time>
      </trkpt>
      <trkpt lat="34.959240" lon="-118.936590">
        <ele>418.858</ele>
        <time>2018-12-28T06:34:57Z</time>
      </trkpt>
      <trkpt lat="34.960920" lon="-118.937120">
        <ele>414.252</ele>
        <time>2018-12-28T06:35:17Z</time>
      </trkpt>
      <trkpt lat="34.962370" lon="-118.937580">
        <ele>409.817</ele>
        <time>2018-12-28T06:35:37Z</time>
      </trkpt>
      <trkpt lat="34.963650" lon="-118.937990">
        <ele>406.008</ele>
        <time>2018-12-28T06:35:57Z</time>
      </trkpt>
      <trkpt lat="34.964720" lon="-118.938320">
        <ele>402.978</ele>
        <time>2018-12-28T06:36:17Z</time>
      </trkpt>
      <trkpt lat="34.965490" lon="-118.938560">
        <ele>400.916</ele>
        <time>2018-12-28T06:36:37Z</time>
      </trkpt>
      <trkpt lat="34.967970" lon="-118.939350">
        <ele>392.741</ele>
        <time>2018-12-28T06:36:57Z</time>
      </trkpt>
      <trkpt lat="34.969350" lon="-118.939780">
        <ele>388.850</ele>
        <time>2018-12-28T06:37:17Z</time>
      </trkpt>
      <trkpt lat="34.970320" lon="-118.940090">
        <ele>385.934</ele>
        <time>2018-12-28T06:37:37Z</time>
      </trkpt>
      <trkpt lat="34.971690" lon="-118.940520">
        <ele>381.987</ele>
        <time>2018-12-28T06:37:57Z</time>
      </trkpt>
      <trkpt lat="34.972810" lon="-118.940880">
        <ele>378.471</ele>
        <time>2018-12-28T06:38:17Z</time>
      </trkpt>
      <trkpt lat="34.973760" lon="-118.941180">
        <ele>377.234</ele>
        <time>2018-12-28T06:38:37Z</time>
      </trkpt>
      <trkpt lat="34.974570" lon="-118.941430">
        <ele>373.121</ele>
        <time>2018-12-28T06:38:57Z</time>
      </trkpt>
      <trkpt lat="34.976150" lon="-118.941930">
        <ele>367.041</ele>
        <time>2018-12-28T06:39:17Z</time>
      </trkpt>
      <trkpt lat="34.977170" lon="-118.942250">
        <ele>364.705</ele>
        <time>2018-12-28T06:39:37Z</time>
      </trkpt>
      <trkpt lat="34.978070" lon="-118.942540">
        <ele>361.908</ele>
        <time>2018-12-28T06:39:57Z</time>
      </trkpt>
      <trkpt lat="34.978960" lon="-118.942820">
        <ele>359.215</ele>
        <time>2018-12-28T06:40:17Z</time>
      </trkpt>
      <trkpt lat="34.979260" lon="-118.942910">
        <ele>358.353</ele>
        <time>2018-12-28T06:40:37Z</time>
      </trkpt>
      <trkpt lat="34.980730" lon="-118.943380">
        <ele>354.188</ele>
        <time>2018-12-28T06:40:57Z</time>
      </trkpt>
      <trkpt lat="34.983410" lon="-118.944220">
        <ele>345.127</ele>
        <time>2018-12-28T06:41:17Z</time>
      </trkpt>
      <trkpt lat="34.984060" lon="-118.944430">
        <ele>342.751</ele>
        <time>2018-12-28T06:41:37Z</time>
      </trkpt>
      <trkpt lat="34.984400" lon="-118.944530">
        <ele>341.844</ele>
        <time>2018-12-28T06:41:57Z</time>
      </trkpt>
      <trkpt lat="34.985030" lon="-118.944730">
        <ele>341.218</ele>
        <time>2018-12-28T06:42:17Z</time>
      </trkpt>
      <trkpt lat="34.986050" lon="-118.945060">
        <ele>340.291</ele>
        <time>2018-12-28T06:42:37Z</time>
      </trkpt>
      <trkpt lat="34.986700" lon="-118.945260">
        <ele>338.535</ele>
        <time>2018-12-28T06:42:57Z</time>
      </trkpt>
      <trkpt lat="34.987020" lon="-118.945360">
        <ele>337.986</ele>
        <time>2018-12-28T06:43:17Z</time>
      </trkpt>
      <trkpt lat="34.987650" lon="-118.945560">
        <ele>336.414</ele>
        <time>2018-12-28T06:43:37Z</time>
      </trkpt>
      <trkpt lat="34.988020" lon="-118.945680">
        <ele>335.408</ele>
        <time>2018-12-28T06:43:57Z</time>
      </trkpt>
      <trkpt lat="34.989010" lon="-118.945990">
        <ele>332.866</ele>
        <time>2018-12-28T06:44:17Z</time>
      </trkpt>
      <trkpt lat="34.991010" lon="-118.946620">
        <ele>327.964</ele>
        <time>2018-12-28T06:44:37Z</time>
      </trkpt>
      <trkpt lat="34.991300" lon="-118.946710">
        <ele>327.069</ele>
        <time>2018-12-28T06:44:57Z</time>
      </trkpt>
      <trkpt lat="34.999680" lon="-118.949360">
        <ele>304.088</ele>
        <time>2018-12-28T06:45:17Z</time>
      </trkpt>
      <trkpt lat="35.005380" lon="-118.951160">
        <ele>287.052</ele>
        <time>2018-12-28T06:45:37Z</time>
      </trkpt>
      <trkpt lat="35.006660" lon="-118.951590">
        <ele>283.355</ele>
        <time>2018-12-28T06:45:57Z</time>
      </trkpt>
      <trkpt lat="35.006658" lon="-118.951585">
        <ele>283.369</ele>
        <time>2018-12-28T06:46:17Z</time>
      </trkpt>
      <trkpt lat="35.006750" lon="-118.951550">
        <ele>283.212</ele>
        <time>2018-12-28T06:46:37Z</time>
      </trkpt>
      <trkpt lat="35.006770" lon="-118.951550">
        <ele>283.155</ele>
        <time>2018-12-28T06:46:57Z</time>
      </trkpt>
      <trkpt lat="35.006810" lon="-118.951540">
        <ele>283.007</ele>
        <time>2018-12-28T06:47:17Z</time>
      </trkpt>
      <trkpt lat="35.006860" lon="-118.951550">
        <ele>282.917</ele>
        <time>2018-12-28T06:47:37Z</time>
      </trkpt>
      <trkpt lat="35.006940" lon="-118.951560">
        <ele>282.708</ele>
        <time>2018-12-28T06:47:57Z</time>
      </trkpt>
      <trkpt lat="35.007060" lon="-118.951590">
        <ele>282.598</ele>
        <time>2018-12-28T06:48:17Z</time>
      </trkpt>
      <trkpt lat="35.007240" lon="-118.951630">
        <ele>282.026</ele>
        <time>2018-12-28T06:48:37Z</time>
      </trkpt>
      <trkpt lat="35.007410" lon="-118.951680">
        <ele>281.631</ele>
        <time>2018-12-28T06:48:57Z</time>
      </trkpt>
      <trkpt lat="35.007610" lon="-118.951730">
        <ele>281.190</ele>
        <time>2018-12-28T06:49:17Z</time>
      </trkpt>
      <trkpt lat="35.007800" lon="-118.951770">
        <ele>280.664</ele>
        <time>2018-12-28T06:49:37Z</time>
      </trkpt>
      <trkpt lat="35.007950" lon="-118.951800">
        <ele>280.127</ele>
        <time>2018-12-28T06:49:57Z</time>
      </trkpt>
      <trkpt lat="35.008090" lon="-118.951820">
        <ele>279.731</ele>
        <time>2018-12-28T06:50:17Z</time>
      </trkpt>
      <trkpt lat="35.008230" lon="-118.951850">
        <ele>279.394</ele>
        <time>2018-12-28T06:50:37Z</time>
      </trkpt>
      <trkpt lat="35.008420" lon="-118.951870">
        <ele>278.715</ele>
        <time>2018-12-28T06:50:57Z</time>
      </trkpt>
      <trkpt lat="35.008600" lon="-118.951890">
        <ele>278.165</ele>
        <time>2018-12-28T06:51:17Z</time>
      </trkpt>
      <trkpt lat="35.008770" lon="-118.951910">
        <ele>277.611</ele>
        <time>2018-12-28T06:51:37Z</time>
      </trkpt>
      <trkpt lat="35.009110" lon="-118.951930">
        <ele>276.608</ele>
        <time>2018-12-28T06:51:57Z</time>
      </trkpt>
      <trkpt lat="35.009350" lon="-118.951930">
        <ele>275.994</ele>
        <time>2018-12-28T06:52:17Z</time>
      </trkpt>
      <trkpt lat="35.009530" lon="-118.951920">
        <ele>275.472</ele>
        <time>2018-12-28T06:52:37Z</time>
      </trkpt>
      <trkpt lat="35.009870" lon="-118.951910">
        <ele>274.557</ele>
        <time>2018-12-28T06:52:57Z</time>
      </trkpt>
      <trkpt lat="35.010310" lon="-118.951890">
        <ele>273.456</ele>
        <time>2018-12-28T06:53:17Z</time>
      </trkpt>
      <trkpt lat="35.010730" lon="-118.951870">
        <ele>272.410</ele>
        <time>2018-12-28T06:53:37Z</time>
      </trkpt>
      <trkpt lat="35.011010" lon="-118.951860">
        <ele>271.623</ele>
        <time>2018-12-28T06:53:57Z</time>
      </trkpt>
      <trkpt lat="35.011290" lon="-118.951850">
        <ele>270.997</ele>
        <time>2018-12-28T06:54:17Z</time>
      </trkpt>
      <trkpt lat="35.011530" lon="-118.951830">
        <ele>270.260</ele>
        <time>2018-12-28T06:54:37Z</time>
      </trkpt>
      <trkpt lat="35.011710" lon="-118.951830">
        <ele>269.893</ele>
        <time>2018-12-28T06:54:57Z</time>
      </trkpt>
      <trkpt lat="35.011890" lon="-118.951820">
        <ele>269.365</ele>
        <time>2018-12-28T06:55:17Z</time>
      </trkpt>
      <trkpt lat="35.012080" lon="-118.951820">
        <ele>268.821</ele>
        <time>2018-12-28T06:55:37Z</time>
      </trkpt>
      <trkpt lat="35.012210" lon="-118.951820">
        <ele>268.508</ele>
        <time>2018-12-28T06:55:57Z</time>
      </trkpt>
      <trkpt lat="35.012340" lon="-118.951830">
        <ele>268.142</ele>
        <time>2018-12-28T06:56:17Z</time>
      </trkpt>
      <trkpt lat="35.012500" lon="-118.951840">
        <ele>267.750</ele>
        <time>2018-12-28T06:56:37Z</time>
      </trkpt>
      <trkpt lat="35.012600" lon="-118.951850">
        <ele>267.575</ele>
        <time>2018-12-28T06:56:57Z</time>
      </trkpt>
      <trkpt lat="35.012720" lon="-118.951860">
        <ele>267.214</ele>
        <time>2018-12-28T06:57:17Z</time>
      </trkpt>
      <trkpt lat="35.012850" lon="-118.951870">
        <ele>266.878</ele>
        <time>2018-12-28T06:57:37Z</time>
      </trkpt>
      <trkpt lat="35.012930" lon="-118.951880">
        <ele>266.611</ele>
        <time>2018-12-28T06:57:57Z</time>
      </trkpt>
      <trkpt lat="35.013020" lon="-118.951900">
        <ele>266.435</ele>
        <time>2018-12-28T06:58:17Z</time>
      </trkpt>
      <trkpt lat="35.013170" lon="-118.951920">
        <ele>266.098</ele>
        <time>2018-12-28T06:58:37Z</time>
      </trkpt>
      <trkpt lat="35.013270" lon="-118.951940">
        <ele>265.881</ele>
        <time>2018-12-28T06:58:57Z</time>
      </trkpt>
      <trkpt lat="35.013380" lon="-118.951960">
        <ele>265.561</ele>
        <time>2018-12-28T06:59:17Z</time>
      </trkpt>
      <trkpt lat="35.013520" lon="-118.951980">
        <ele>265.117</ele>
        <time>2018-12-28T06:59:37Z</time>
      </trkpt>
      <trkpt lat="35.013650" lon="-118.952020">
        <ele>264.808</ele>
        <time>2018-12-28T06:59:57Z</time>
      </trkpt>
      <trkpt lat="35.013780" lon="-118.952040">
        <ele>264.521</ele>
        <time>2018-12-28T07:00:17Z</time>
      </trkpt>
      <trkpt lat="35.013940" lon="-118.952090">
        <ele>264.089</ele>
        <time>2018-12-28T07:00:37Z</time>
      </trkpt>
      <trkpt lat="35.014140" lon="-118.952150">
        <ele>263.514</ele>
        <time>2018-12-28T07:00:57Z</time>
      </trkpt>
      <trkpt lat="35.014240" lon="-118.952180">
        <ele>263.353</ele>
        <time>2018-12-28T07:01:17Z</time>
      </trkpt>
      <trkpt lat="35.014400" lon="-118.952240">
        <ele>262.977</ele>
        <time>2018-12-28T07:01:37Z</time>
      </trkpt>
      <trkpt lat="35.014540" lon="-118.952290">
        <ele>262.580</ele>
        <time>2018-12-28T07:01:57Z</time>
      </trkpt>
      <trkpt lat="35.014710" lon="-118.952360">
        <ele>262.054</ele>
        <time>2018-12-28T07:02:17Z</time>
      </trkpt>
      <trkpt lat="35.014860" lon="-118.952420">
        <ele>261.617</ele>
        <time>2018-12-28T07:02:37Z</time>
      </trkpt>
      <trkpt lat="35.015030" lon="-118.952500">
        <ele>261.181</ele>
        <time>2018-12-28T07:02:57Z</time>
      </trkpt>
      <trkpt lat="35.015190" lon="-118.952570">
        <ele>260.661</ele>
        <time>2018-12-28T07:03:17Z</time>
      </trkpt>
      <trkpt lat="35.015340" lon="-118.952650">
        <ele>260.217</ele>
        <time>2018-12-28T07:03:37Z</time>
      </trkpt>
      <trkpt lat="35.015480" lon="-118.952720">
        <ele>259.808</ele>
        <time>2018-12-28T07:03:57Z</time>
      </trkpt>
      <trkpt lat="35.015640" lon="-118.952810">
        <ele>259.391</ele>
        <time>2018-12-28T07:04:17Z</time>
      </trkpt>
      <trkpt lat="35.015790" lon="-118.952900">
        <ele>258.959</ele>
        <time>2018-12-28T07:04:37Z</time>
      </trkpt>
      <trkpt lat="35.016000" lon="-118.953040">
        <ele>258.424</ele>
        <time>2018-12-28T07:04:57Z</time>
      </trkpt>
      <trkpt lat="35.016260" lon="-118.953220">
        <ele>257.793</ele>
        <time>2018-12-28T07:05:17Z</time>
      </trkpt>
      <trkpt lat="35.016380" lon="-118.953300">
        <ele>257.347</ele>
        <time>2018-12-28T07:05:37Z</time>
      </trkpt>
      <trkpt lat="35.016490" lon="-118.953380">
        <ele>257.160</ele>
        <time>2018-12-28T07:05:57Z</time>
      </trkpt>
      <trkpt lat="35.016720" lon="-118.953570">
        <ele>256.514</ele>
        <time>2018-12-28T07:06:17Z</time>
      </trkpt>
      <trkpt lat="35.016940" lon="-118.953750">
        <ele>255.957</ele>
        <time>2018-12-28T07:06:37Z</time>
      </trkpt>
      <trkpt lat="35.017050" lon="-118.953850">
        <ele>255.597</ele>
        <time>2018-12-28T07:06:57Z</time>
      </trkpt>
      <trkpt lat="35.017310" lon="-118.954090">
        <ele>254.823</ele>
        <time>2018-12-28T07:07:17Z</time>
      </trkpt>
      <trkpt lat="35.017570" lon="-118.954360">
        <ele>254.025</ele>
        <time>2018-12-28T07:07:37Z</time>
      </trkpt>
      <trkpt lat="35.017700" lon="-118.954500">
        <ele>253.608</ele>
        <time>2018-12-28T07:07:57Z</time>
      </trkpt>
      <trkpt lat="35.018160" lon="-118.955050">
        <ele>252.232</ele>
        <time>2018-12-28T07:08:17Z</time>
      </trkpt>
      <trkpt lat="35.018350" lon="-118.955270">
        <ele>251.690</ele>
        <time>2018-12-28T07:08:37Z</time>
      </trkpt>
      <trkpt lat="35.018360" lon="-118.955280">
        <ele>251.685</ele>
        <time>2018-12-28T07:08:57Z</time>
      </trkpt>
      <trkpt lat="35.018380" lon="-118.955310">
        <ele>251.564</ele>
        <time>2018-12-28T07:09:17Z</time>
      </trkpt>
      <trkpt lat="35.018630" lon="-118.955610">
        <ele>250.748</ele>
        <time>2018-12-28T07:09:37Z</time>
      </trkpt>
      <trkpt lat="35.018640" lon="-118.955620">
        <ele>250.761</ele>
        <time>2018-12-28T07:09:57Z</time>
      </trkpt>
      <trkpt lat="35.018700" lon="-118.955690">
        <ele>250.535</ele>
        <time>2018-12-28T07:10:17Z</time>
      </trkpt>
      <trkpt lat="35.018800" lon="-118.955820">
        <ele>250.268</ele>
        <time>2018-12-28T07:10:37Z</time>
      </trkpt>
      <trkpt lat="35.020660" lon="-118.958050">
        <ele>244.615</ele>
        <time>2018-12-28T07:10:57Z</time>
      </trkpt>
      <trkpt lat="35.020710" lon="-118.958130">
        <ele>244.565</ele>
        <time>2018-12-28T07:11:17Z</time>
      </trkpt>
      <trkpt lat="35.021280" lon="-118.958810">
        <ele>242.911</ele>
        <time>2018-12-28T07:11:37Z</time>
      </trkpt>
      <trkpt lat="35.021940" lon="-118.959610">
        <ele>241.008</ele>
        <time>2018-12-28T07:11:57Z</time>
      </trkpt>
      <trkpt lat="35.022130" lon="-118.959840">
        <ele>240.564</ele>
        <time>2018-12-28T07:12:17Z</time>
      </trkpt>
      <trkpt lat="35.022420" lon="-118.960190">
        <ele>239.872</ele>
        <time>2018-12-28T07:12:37Z</time>
      </trkpt>
      <trkpt lat="35.023360" lon="-118.961330">
        <ele>237.847</ele>
        <time>2018-12-28T07:12:57Z</time>
      </trkpt>
      <trkpt lat="35.024020" lon="-118.962130">
        <ele>236.086</ele>
        <time>2018-12-28T07:13:17Z</time>
      </trkpt>
      <trkpt lat="35.024490" lon="-118.962710">
        <ele>234.580</ele>
        <time>2018-12-28T07:13:37Z</time>
      </trkpt>
      <trkpt lat="35.025200" lon="-118.963580">
        <ele>233.183</ele>
        <time>2018-12-28T07:13:57Z</time>
      </trkpt>
      <trkpt lat="35.025740" lon="-118.964230">
        <ele>231.527</ele>
        <time>2018-12-28T07:14:17Z</time>
      </trkpt>
      <trkpt lat="35.026070" lon="-118.964640">
        <ele>230.270</ele>
        <time>2018-12-28T07:14:37Z</time>
      </trkpt>
      <trkpt lat="35.026660" lon="-118.965360">
        <ele>229.133</ele>
        <time>2018-12-28T07:14:57Z</time>
      </trkpt>
      <trkpt lat="35.027880" lon="-118.966820">
        <ele>227.223</ele>
        <time>2018-12-28T07:15:17Z</time>
      </trkpt>
      <trkpt lat="35.028650" lon="-118.967760">
        <ele>225.015</ele>
        <time>2018-12-28T07:15:37Z</time>
      </trkpt>
      <trkpt lat="35.028930" lon="-118.968100">
        <ele>224.108</ele>
        <time>2018-12-28T07:15:57Z</time>
      </trkpt>
      <trkpt lat="35.029400" lon="-118.968660">
        <ele>222.426</ele>
        <time>2018-12-28T07:16:17Z</time>
      </trkpt>
      <trkpt lat="35.029880" lon="-118.969240">
        <ele>221.254</ele>
        <time>2018-12-28T07:16:37Z</time>
      </trkpt>
      <trkpt lat="35.030280" lon="-118.969730">
        <ele>220.389</ele>
        <time>2018-12-28T07:16:57Z</time>
      </trkpt>
      <trkpt lat="35.030530" lon="-118.970040">
        <ele>219.788</ele>
        <time>2018-12-28T07:17:17Z</time>
      </trkpt>
      <trkpt lat="35.030720" lon="-118.970260">
        <ele>219.422</ele>
        <time>2018-12-28T07:17:37Z</time>
      </trkpt>
      <trkpt lat="35.030910" lon="-118.970490">
        <ele>218.965</ele>
        <time>2018-12-28T07:17:57Z</time>
      </trkpt>
      <trkpt lat="35.031190" lon="-118.970830">
        <ele>217.819</ele>
        <time>2018-12-28T07:18:17Z</time>
      </trkpt>
      <trkpt lat="35.031470" lon="-118.971170">
        <ele>216.492</ele>
        <time>2018-12-28T07:18:37Z</time>
      </trkpt>
      <trkpt lat="35.032100" lon="-118.971930">
        <ele>215.539</ele>
        <time>2018-12-28T07:18:57Z</time>
      </trkpt>
      <trkpt lat="35.032710" lon="-118.972650">
        <ele>214.101</ele>
        <time>2018-12-28T07:19:17Z</time>
      </trkpt>
      <trkpt lat="35.033310" lon="-118.973310">
        <ele>212.621</ele>
        <time>2018-12-28T07:19:37Z</time>
      </trkpt>
      <trkpt lat="35.034000" lon="-118.974040">
        <ele>210.908</ele>
        <time>2018-12-28T07:19:57Z</time>
      </trkpt>
      <trkpt lat="35.034230" lon="-118.974270">
        <ele>210.336</ele>
        <time>2018-12-28T07:20:17Z</time>
      </trkpt>
      <trkpt lat="35.034730" lon="-118.974760">
        <ele>209.044</ele>
        <time>2018-12-28T07:20:37Z</time>
      </trkpt>
      <trkpt lat="35.034930" lon="-118.974950">
        <ele>208.569</ele>
        <time>2018-12-28T07:20:57Z</time>
      </trkpt>
      <trkpt lat="35.035610" lon="-118.975580">
        <ele>206.968</ele>
        <time>2018-12-28T07:21:17Z</time>
      </trkpt>
      <trkpt lat="35.035990" lon="-118.975930">
        <ele>206.152</ele>
        <time>2018-12-28T07:21:37Z</time>
      </trkpt>
      <trkpt lat="35.036550" lon="-118.976440">
        <ele>204.725</ele>
        <time>2018-12-28T07:21:57Z</time>
      </trkpt>
      <trkpt lat="35.036650" lon="-118.976540">
        <ele>204.479</ele>
        <time>2018-12-28T07:22:17Z</time>
      </trkpt>
      <trkpt lat="35.037390" lon="-118.977210">
        <ele>202.672</ele>
        <time>2018-12-28T07:22:37Z</time>
      </trkpt>
      <trkpt lat="35.037990" lon="-118.977770">
        <ele>201.146</ele>
        <time>2018-12-28T07:22:57Z</time>
      </trkpt>
      <trkpt lat="35.038680" lon="-118.978400">
        <ele>199.688</ele>
        <time>2018-12-28T07:23:17Z</time>
      </trkpt>
      <trkpt lat="35.039340" lon="-118.979010">
        <ele>198.116</ele>
        <time>2018-12-28T07:23:37Z</time>
      </trkpt>
      <trkpt lat="35.040020" lon="-118.979640">
        <ele>196.408</ele>
        <time>2018-12-28T07:23:57Z</time>
      </trkpt>
      <trkpt lat="35.040400" lon="-118.979980">
        <ele>195.697</ele>
        <time>2018-12-28T07:24:17Z</time>
      </trkpt>
      <trkpt lat="35.040850" lon="-118.980390">
        <ele>194.825</ele>
        <time>2018-12-28T07:24:37Z</time>
      </trkpt>
      <trkpt lat="35.041200" lon="-118.980710">
        <ele>194.190</ele>
        <time>2018-12-28T07:24:57Z</time>
      </trkpt>
      <trkpt lat="35.042330" lon="-118.981750">
        <ele>191.529</ele>
        <time>2018-12-28T07:25:17Z</time>
      </trkpt>
      <trkpt lat="35.042760" lon="-118.982140">
        <ele>190.593</ele>
        <time>2018-12-28T07:25:37Z</time>
      </trkpt>
      <trkpt lat="35.043360" lon="-118.982700">
        <ele>189.036</ele>
        <time>2018-12-28T07:25:57Z</time>
      </trkpt>
      <trkpt lat="35.043780" lon="-118.983090">
        <ele>188.050</ele>
        <time>2018-12-28T07:26:17Z</time>
      </trkpt>
      <trkpt lat="35.044210" lon="-118.983480">
        <ele>186.933</ele>
        <time>2018-12-28T07:26:37Z</time>
      </trkpt>
      <trkpt lat="35.044530" lon="-118.983780">
        <ele>186.265</ele>
        <time>2018-12-28T07:26:57Z</time>
      </trkpt>
      <trkpt lat="35.044960" lon="-118.984160">
        <ele>185.268</ele>
        <time>2018-12-28T07:27:17Z</time>
      </trkpt>
      <trkpt lat="35.045270" lon="-118.984460">
        <ele>184.414</ele>
        <time>2018-12-28T07:27:37Z</time>
      </trkpt>
      <trkpt lat="35.045700" lon="-118.984850">
        <ele>183.408</ele>
        <time>2018-12-28T07:27:57Z</time>
      </trkpt>
      <trkpt lat="35.046120" lon="-118.985240">
        <ele>182.589</ele>
        <time>2018-12-28T07:28:17Z</time>
      </trkpt>
      <trkpt lat="35.046550" lon="-118.985630">
        <ele>181.687</ele>
        <time>2018-12-28T07:28:37Z</time>
      </trkpt>
      <trkpt lat="35.047070" lon="-118.986110">
        <ele>180.422</ele>
        <time>2018-12-28T07:28:57Z</time>
      </trkpt>
      <trkpt lat="35.047290" lon="-118.986320">
        <ele>179.921</ele>
        <time>2018-12-28T07:29:17Z</time>
      </trkpt>
      <trkpt lat="35.047600" lon="-118.986600">
        <ele>179.365</ele>
        <time>2018-12-28T07:29:37Z</time>
      </trkpt>
      <trkpt lat="35.047920" lon="-118.986900">
        <ele>178.658</ele>
        <time>2018-12-28T07:29:57Z</time>
      </trkpt>
      <trkpt lat="35.048340" lon="-118.987300">
        <ele>177.642</ele>
        <time>2018-12-28T07:30:17Z</time>
      </trkpt>
      <trkpt lat="35.048480" lon="-118.987430">
        <ele>177.355</ele>
        <time>2018-12-28T07:30:37Z</time>
      </trkpt>
      <trkpt lat="35.048760" lon="-118.987710">
        <ele>176.676</ele>
        <time>2018-12-28T07:30:57Z</time>
      </trkpt>
      <trkpt lat="35.048870" lon="-118.987810">
        <ele>176.390</ele>
        <time>2018-12-28T07:31:17Z</time>
      </trkpt>
      <trkpt lat="35.049380" lon="-118.988330">
        <ele>175.119</ele>
        <time>2018-12-28T07:31:37Z</time>
      </trkpt>
      <trkpt lat="35.050380" lon="-118.989380">
        <ele>172.908</ele>
        <time>2018-12-28T07:31:57Z</time>
      </trkpt>
      <trkpt lat="35.050890" lon="-118.989900">
        <ele>171.820</ele>
        <time>2018-12-28T07:32:17Z</time>
      </trkpt>
      <trkpt lat="35.051300" lon="-118.990340">
        <ele>170.818</ele>
        <time>2018-12-28T07:32:37Z</time>
      </trkpt>
      <trkpt lat="35.051690" lon="-118.990760">
        <ele>169.943</ele>
        <time>2018-12-28T07:32:57Z</time>
      </trkpt>
      <trkpt lat="35.051990" lon="-118.991090">
        <ele>169.122</ele>
        <time>2018-12-28T07:33:17Z</time>
      </trkpt>
      <trkpt lat="35.052790" lon="-118.991940">
        <ele>167.146</ele>
        <time>2018-12-28T07:33:37Z</time>
      </trkpt>
      <trkpt lat="35.053680" lon="-118.992890">
        <ele>164.869</ele>
        <time>2018-12-28T07:33:57Z</time>
      </trkpt>
      <trkpt lat="35.054170" lon="-118.993420">
        <ele>163.783</ele>
        <time>2018-12-28T07:34:17Z</time>
      </trkpt>
      <trkpt lat="35.054960" lon="-118.994260">
        <ele>162.086</ele>
        <time>2018-12-28T07:34:37Z</time>
      </trkpt>
      <trkpt lat="35.055250" lon="-118.994570">
        <ele>161.362</ele>
        <time>2018-12-28T07:34:57Z</time>
      </trkpt>
      <trkpt lat="35.056340" lon="-118.995730">
        <ele>158.983</ele>
        <time>2018-12-28T07:35:17Z</time>
      </trkpt>
      <trkpt lat="35.056730" lon="-118.996150">
        <ele>158.211</ele>
        <time>2018-12-28T07:35:37Z</time>
      </trkpt>
      <trkpt lat="35.057230" lon="-118.996680">
        <ele>157.208</ele>
        <time>2018-12-28T07:35:57Z</time>
      </trkpt>
      <trkpt lat="35.057720" lon="-118.997200">
        <ele>156.219</ele>
        <time>2018-12-28T07:36:17Z</time>
      </trkpt>
      <trkpt lat="35.058810" lon="-118.998360">
        <ele>154.277</ele>
        <time>2018-12-28T07:36:37Z</time>
      </trkpt>
      <trkpt lat="35.060160" lon="-118.999810">
        <ele>151.332</ele>
        <time>2018-12-28T07:36:57Z</time>
      </trkpt>
      <trkpt lat="35.060850" lon="-119.000550">
        <ele>149.741</ele>
        <time>2018-12-28T07:37:17Z</time>
      </trkpt>
      <trkpt lat="35.061830" lon="-119.001590">
        <ele>147.415</ele>
        <time>2018-12-28T07:37:37Z</time>
      </trkpt>
      <trkpt lat="35.062370" lon="-119.002170">
        <ele>146.448</ele>
        <time>2018-12-28T07:37:57Z</time>
      </trkpt>
      <trkpt lat="35.062750" lon="-119.002580">
        <ele>145.862</ele>
        <time>2018-12-28T07:38:17Z</time>
      </trkpt>
      <trkpt lat="35.063580" lon="-119.003460">
        <ele>144.325</ele>
        <time>2018-12-28T07:38:37Z</time>
      </trkpt>
      <trkpt lat="35.065780" lon="-119.005810">
        <ele>140.434</ele>
        <time>2018-12-28T07:38:57Z</time>
      </trkpt>
      <trkpt lat="35.070720" lon="-119.011090">
        <ele>132.855</ele>
        <time>2018-12-28T07:39:17Z</time>
      </trkpt>
      <trkpt lat="35.071790" lon="-119.012240">
        <ele>131.210</ele>
        <time>2018-12-28T07:39:37Z</time>
      </trkpt>
      <trkpt lat="35.072780" lon="-119.013290">
        <ele>129.908</ele>
        <time>2018-12-28T07:39:57Z</time>
      </trkpt>
      <trkpt lat="35.073280" lon="-119.013820">
        <ele>129.296</ele>
        <time>2018-12-28T07:40:17Z</time>
      </trkpt>
      <trkpt lat="35.074260" lon="-119.014880">
        <ele>127.614</ele>
        <time>2018-12-28T07:40:37Z</time>
      </trkpt>
      <trkpt lat="35.074870" lon="-119.015530">
        <ele>126.599</ele>
        <time>2018-12-28T07:40:57Z</time>
      </trkpt>
      <trkpt lat="35.075450" lon="-119.016150">
        <ele>125.598</ele>
        <time>2018-12-28T07:41:17Z</time>
      </trkpt>
      <trkpt lat="35.075980" lon="-119.016710">
        <ele>124.622</ele>
        <time>2018-12-28T07:41:37Z</time>
      </trkpt>
      <trkpt lat="35.076290" lon="-119.017050">
        <ele>124.135</ele>
        <time>2018-12-28T07:41:57Z</time>
      </trkpt>
      <trkpt lat="35.076380" lon="-119.017140">
        <ele>124.059</ele>
        <time>2018-12-28T07:42:17Z</time>
      </trkpt>
      <trkpt lat="35.077330" lon="-119.018160">
        <ele>122.812</ele>
        <time>2018-12-28T07:42:37Z</time>
      </trkpt>
      <trkpt lat="35.078390" lon="-119.019280">
        <ele>121.164</ele>
        <time>2018-12-28T07:42:57Z</time>
      </trkpt>
      <trkpt lat="35.078970" lon="-119.019910">
        <ele>119.906</ele>
        <time>2018-12-28T07:43:17Z</time>
      </trkpt>
      <trkpt lat="35.079870" lon="-119.020870">
        <ele>118.516</ele>
        <time>2018-12-28T07:43:37Z</time>
      </trkpt>
      <trkpt lat="35.080460" lon="-119.021500">
        <ele>117.708</ele>
        <time>2018-12-28T07:43:57Z</time>
      </trkpt>
      <trkpt lat="35.080840" lon="-119.021910">
        <ele>117.279</ele>
        <time>2018-12-28T07:44:17Z</time>
      </trkpt>
      <trkpt lat="35.081840" lon="-119.022970">
        <ele>115.997</ele>
        <time>2018-12-28T07:44:37Z</time>
      </trkpt>
      <trkpt lat="35.082920" lon="-119.024130">
        <ele>114.342</ele>
        <time>2018-12-28T07:44:57Z</time>
      </trkpt>
      <trkpt lat="35.083100" lon="-119.024320">
        <ele>114.141</ele>
        <time>2018-12-28T07:45:17Z</time>
      </trkpt>
      <trkpt lat="35.083120" lon="-119.024340">
        <ele>114.195</ele>
        <time>2018-12-28T07:45:37Z</time>
      </trkpt>
      <trkpt lat="35.083150" lon="-119.024390">
        <ele>114.078</ele>
        <time>2018-12-28T07:45:57Z</time>
      </trkpt>
      <trkpt lat="35.083170" lon="-119.024410">
        <ele>114.042</ele>
        <time>2018-12-28T07:46:17Z</time>
      </trkpt>
      <trkpt lat="35.083240" lon="-119.024490">
        <ele>113.845</ele>
        <time>2018-12-28T07:46:37Z</time>
      </trkpt>
      <trkpt lat="35.084300" lon="-119.025620">
        <ele>112.022</ele>
        <time>2018-12-28T07:46:57Z</time>
      </trkpt>
      <trkpt lat="35.085780" lon="-119.027220">
        <ele>110.262</ele>
        <time>2018-12-28T07:47:17Z</time>
      </trkpt>
      <trkpt lat="35.086570" lon="-119.028060">
        <ele>109.408</ele>
        <time>2018-12-28T07:47:37Z</time>
      </trkpt>
      <trkpt lat="35.087260" lon="-119.028800">
        <ele>108.608</ele>
        <time>2018-12-28T07:47:57Z</time>
      </trkpt>
      <trkpt lat="35.088040" lon="-119.029630">
        <ele>107.565</ele>
        <time>2018-12-28T07:48:17Z</time>
      </trkpt>
      <trkpt lat="35.089620" lon="-119.031320">
        <ele>107.193</ele>
        <time>2018-12-28T07:48:37Z</time>
      </trkpt>
      <trkpt lat="35.090220" lon="-119.031960">
        <ele>107.038</ele>
        <time>2018-12-28T07:48:57Z</time>
      </trkpt>
      <trkpt lat="35.090820" lon="-119.032610">
        <ele>106.877</ele>
        <time>2018-12-28T07:49:17Z</time>
      </trkpt>
      <trkpt lat="35.091500" lon="-119.033340">
        <ele>106.771</ele>
        <time>2018-12-28T07:49:37Z</time>
      </trkpt>
      <trkpt lat="35.092100" lon="-119.033970">
        <ele>106.834</ele>
        <time>2018-12-28T07:49:57Z</time>
      </trkpt>
      <trkpt lat="35.094360" lon="-119.036390">
        <ele>106.848</ele>
        <time>2018-12-28T07:50:17Z</time>
      </trkpt>
      <trkpt lat="35.094970" lon="-119.037040">
        <ele>106.621</ele>
        <time>2018-12-28T07:50:37Z</time>
      </trkpt>
      <trkpt lat="35.094990" lon="-119.037060">
        <ele>106.635</ele>
        <time>2018-12-28T07:50:57Z</time>
      </trkpt>
      <trkpt lat="35.095540" lon="-119.037650">
        <ele>107.086</ele>
        <time>2018-12-28T07:51:17Z</time>
      </trkpt>
      <trkpt lat="35.097090" lon="-119.039300">
        <ele>104.614</ele>
        <time>2018-12-28T07:51:37Z</time>
      </trkpt>
      <trkpt lat="35.097370" lon="-119.039610">
        <ele>104.308</ele>
        <time>2018-12-28T07:51:57Z</time>
      </trkpt>
      <trkpt lat="35.097420" lon="-119.039670">
        <ele>104.296</ele>
        <time>2018-12-28T07:52:17Z</time>
      </trkpt>
      <trkpt lat="35.097790" lon="-119.040050">
        <ele>103.624</ele>
        <time>2018-12-28T07:52:37Z</time>
      </trkpt>
      <trkpt lat="35.098100" lon="-119.040380">
        <ele>103.289</ele>
        <time>2018-12-28T07:52:57Z</time>
      </trkpt>
      <trkpt lat="35.098550" lon="-119.040860">
        <ele>102.828</ele>
        <time>2018-12-28T07:53:17Z</time>
      </trkpt>
      <trkpt lat="35.099080" lon="-119.041440">
        <ele>102.462</ele>
        <time>2018-12-28T07:53:37Z</time>
      </trkpt>
      <trkpt lat="35.099260" lon="-119.041630">
        <ele>102.325</ele>
        <time>2018-12-28T07:53:57Z</time>
      </trkpt>
      <trkpt lat="35.100420" lon="-119.042890">
        <ele>101.589</ele>
        <time>2018-12-28T07:54:17Z</time>
      </trkpt>
      <trkpt lat="35.100920" lon="-119.043440">
        <ele>101.252</ele>
        <time>2018-12-28T07:54:37Z</time>
      </trkpt>
      <trkpt lat="35.101370" lon="-119.043940">
        <ele>100.689</ele>
        <time>2018-12-28T07:54:57Z</time>
      </trkpt>
      <trkpt lat="35.101670" lon="-119.044270">
        <ele>99.906</ele>
        <time>2018-12-28T07:55:17Z</time>
      </trkpt>
      <trkpt lat="35.102230" lon="-119.044880">
        <ele>98.826</ele>
        <time>2018-12-28T07:55:37Z</time>
      </trkpt>
      <trkpt lat="35.103210" lon="-119.045970">
        <ele>96.908</ele>
        <time>2018-12-28T07:55:57Z</time>
      </trkpt>
      <trkpt lat="35.103580" lon="-119.046370">
        <ele>96.561</ele>
        <time>2018-12-28T07:56:17Z</time>
      </trkpt>
      <trkpt lat="35.104460" lon="-119.047350">
        <ele>95.439</ele>
        <time>2018-12-28T07:56:37Z</time>
      </trkpt>
      <trkpt lat="35.105130" lon="-119.048080">
        <ele>94.764</ele>
        <time>2018-12-28T07:56:57Z</time>
      </trkpt>
      <trkpt lat="35.107150" lon="-119.050310">
        <ele>92.713</ele>
        <time>2018-12-28T07:57:17Z</time>
      </trkpt>
      <trkpt lat="35.109690" lon="-119.053120">
        <ele>90.757</ele>
        <time>2018-12-28T07:57:37Z</time>
      </trkpt>
      <trkpt lat="35.110340" lon="-119.053840">
        <ele>90.670</ele>
        <time>2018-12-28T07:57:57Z</time>
      </trkpt>
      <trkpt lat="35.110460" lon="-119.053970">
        <ele>90.554</ele>
        <time>2018-12-28T07:58:17Z</time>
      </trkpt>
      <trkpt lat="35.111050" lon="-119.054620">
        <ele>90.467</ele>
        <time>2018-12-28T07:58:37Z</time>
      </trkpt>
      <trkpt lat="35.111330" lon="-119.054940">
        <ele>90.441</ele>
        <time>2018-12-28T07:58:57Z</time>
      </trkpt>
      <trkpt lat="35.111730" lon="-119.055380">
        <ele>90.281</ele>
        <time>2018-12-28T07:59:17Z</time>
      </trkpt>
      <trkpt lat="35.112210" lon="-119.055900">
        <ele>90.009</ele>
        <time>2018-12-28T07:59:37Z</time>
      </trkpt>
      <trkpt lat="35.112610" lon="-119.056340">
        <ele>89.808</ele>
        <time>2018-12-28T07:59:57Z</time>
      </trkpt>
      <trkpt lat="35.113180" lon="-119.056980">
        <ele>89.697</ele>
        <time>2018-12-28T08:00:17Z</time>
      </trkpt>
      <trkpt lat="35.113860" lon="-119.057720">
        <ele>89.265</ele>
        <time>2018-12-28T08:00:37Z</time>
      </trkpt>
      <trkpt lat="35.114360" lon="-119.058270">
        <ele>89.050</ele>
        <time>2018-12-28T08:00:57Z</time>
      </trkpt>
      <trkpt lat="35.115070" lon="-119.059050">
        <ele>88.679</ele>
        <time>2018-12-28T08:01:17Z</time>
      </trkpt>
      <trkpt lat="35.115990" lon="-119.060080">
        <ele>88.053</ele>
        <time>2018-12-28T08:01:37Z</time>
      </trkpt>
      <trkpt lat="35.116970" lon="-119.061160">
        <ele>87.676</ele>
        <time>2018-12-28T08:01:57Z</time>
      </trkpt>
      <trkpt lat="35.117370" lon="-119.061600">
        <ele>87.460</ele>
        <time>2018-12-28T08:02:17Z</time>
      </trkpt>
      <trkpt lat="35.119780" lon="-119.064260">
        <ele>87.043</ele>
        <time>2018-12-28T08:02:37Z</time>
      </trkpt>
      <trkpt lat="35.123670" lon="-119.068560">
        <ele>85.448</ele>
        <time>2018-12-28T08:02:57Z</time>
      </trkpt>
      <trkpt lat="35.126980" lon="-119.072220">
        <ele>85.861</ele>
        <time>2018-12-28T08:03:17Z</time>
      </trkpt>
      <trkpt lat="35.128620" lon="-119.074030">
        <ele>85.817</ele>
        <time>2018-12-28T08:03:37Z</time>
      </trkpt>
      <trkpt lat="35.129080" lon="-119.074530">
        <ele>85.808</ele>
        <time>2018-12-28T08:03:57Z</time>
      </trkpt>
      <trkpt lat="35.129650" lon="-119.075200">
        <ele>85.997</ele>
        <time>2018-12-28T08:04:17Z</time>
      </trkpt>
      <trkpt lat="35.134030" lon="-119.080040">
        <ele>86.355</ele>
        <time>2018-12-28T08:04:37Z</time>
      </trkpt>
      <trkpt lat="35.137270" lon="-119.083620">
        <ele>86.780</ele>
        <time>2018-12-28T08:04:57Z</time>
      </trkpt>
      <trkpt lat="35.138700" lon="-119.085190">
        <ele>86.879</ele>
        <time>2018-12-28T08:05:17Z</time>
      </trkpt>
      <trkpt lat="35.144950" lon="-119.092100">
        <ele>87.383</ele>
        <time>2018-12-28T08:05:37Z</time>
      </trkpt>
      <trkpt lat="35.151420" lon="-119.099260">
        <ele>87.916</ele>
        <time>2018-12-28T08:05:57Z</time>
      </trkpt>
      <trkpt lat="35.152100" lon="-119.100000">
        <ele>88.050</ele>
        <time>2018-12-28T08:06:17Z</time>
      </trkpt>
      <trkpt lat="35.158680" lon="-119.107290">
        <ele>88.993</ele>
        <time>2018-12-28T08:06:37Z</time>
      </trkpt>
      <trkpt lat="35.158970" lon="-119.107610">
        <ele>88.983</ele>
        <time>2018-12-28T08:06:57Z</time>
      </trkpt>
      <trkpt lat="35.161380" lon="-119.110280">
        <ele>89.125</ele>
        <time>2018-12-28T08:07:17Z</time>
      </trkpt>
      <trkpt lat="35.161910" lon="-119.110860">
        <ele>89.117</ele>
        <time>2018-12-28T08:07:37Z</time>
      </trkpt>
      <trkpt lat="35.164140" lon="-119.113320">
        <ele>89.108</ele>
        <time>2018-12-28T08:07:57Z</time>
      </trkpt>
      <trkpt lat="35.164400" lon="-119.113610">
        <ele>89.141</ele>
        <time>2018-12-28T08:08:17Z</time>
      </trkpt>
      <trkpt lat="35.164790" lon="-119.114050">
        <ele>89.139</ele>
        <time>2018-12-28T08:08:37Z</time>
      </trkpt>
      <trkpt lat="35.170310" lon="-119.120150">
        <ele>89.134</ele>
        <time>2018-12-28T08:08:57Z</time>
      </trkpt>
      <trkpt lat="35.171390" lon="-119.121350">
        <ele>89.143</ele>
        <time>2018-12-28T08:09:17Z</time>
      </trkpt>
      <trkpt lat="35.172260" lon="-119.122310">
        <ele>89.067</ele>
        <time>2018-12-28T08:09:37Z</time>
      </trkpt>
      <trkpt lat="35.174300" lon="-119.124570">
        <ele>89.010</ele>
        <time>2018-12-28T08:09:57Z</time>
      </trkpt>
      <trkpt lat="35.175960" lon="-119.126410">
        <ele>89.244</ele>
        <time>2018-12-28T08:10:17Z</time>
      </trkpt>
      <trkpt lat="35.176830" lon="-119.127370">
        <ele>89.217</ele>
        <time>2018-12-28T08:10:37Z</time>
      </trkpt>
      <trkpt lat="35.177690" lon="-119.128340">
        <ele>89.123</ele>
        <time>2018-12-28T08:10:57Z</time>
      </trkpt>
      <trkpt lat="35.178770" lon="-119.129550">
        <ele>89.183</ele>
        <time>2018-12-28T08:11:17Z</time>
      </trkpt>
      <trkpt lat="35.179730" lon="-119.130620">
        <ele>89.111</ele>
        <time>2018-12-28T08:11:37Z</time>
      </trkpt>
      <trkpt lat="35.180090" lon="-119.131020">
        <ele>89.108</ele>
        <time>2018-12-28T08:11:57Z</time>
      </trkpt>
      <trkpt lat="35.180450" lon="-119.131420">
        <ele>89.115</ele>
        <time>2018-12-28T08:12:17Z</time>
      </trkpt>
      <trkpt lat="35.181270" lon="-119.132320">
        <ele>89.163</ele>
        <time>2018-12-28T08:12:37Z</time>
      </trkpt>
      <trkpt lat="35.181650" lon="-119.132700">
        <ele>89.118</ele>
        <time>2018-12-28T08:12:57Z</time>
      </trkpt>
      <trkpt lat="35.183320" lon="-119.134560">
        <ele>89.117</ele>
        <time>2018-12-28T08:13:17Z</time>
      </trkpt>
      <trkpt lat="35.187050" lon="-119.138690">
        <ele>89.631</ele>
        <time>2018-12-28T08:13:37Z</time>
      </trkpt>
      <trkpt lat="35.194090" lon="-119.146490">
        <ele>90.444</ele>
        <time>2018-12-28T08:13:57Z</time>
      </trkpt>
      <trkpt lat="35.197270" lon="-119.150020">
        <ele>90.718</ele>
        <time>2018-12-28T08:14:17Z</time>
      </trkpt>
      <trkpt lat="35.200330" lon="-119.153300">
        <ele>91.671</ele>
        <time>2018-12-28T08:14:37Z</time>
      </trkpt>
      <trkpt lat="35.202300" lon="-119.155390">
        <ele>92.278</ele>
        <time>2018-12-28T08:14:57Z</time>
      </trkpt>
      <trkpt lat="35.204930" lon="-119.158200">
        <ele>92.633</ele>
        <time>2018-12-28T08:15:17Z</time>
      </trkpt>
      <trkpt lat="35.205610" lon="-119.158920">
        <ele>92.626</ele>
        <time>2018-12-28T08:15:37Z</time>
      </trkpt>
      <trkpt lat="35.205920" lon="-119.159240">
        <ele>92.608</ele>
        <time>2018-12-28T08:15:57Z</time>
      </trkpt>
      <trkpt lat="35.207090" lon="-119.160480">
        <ele>92.140</ele>
        <time>2018-12-28T08:16:17Z</time>
      </trkpt>
      <trkpt lat="35.209120" lon="-119.162640">
        <ele>92.168</ele>
        <time>2018-12-28T08:16:37Z</time>
      </trkpt>
      <trkpt lat="35.210930" lon="-119.164570">
        <ele>92.843</ele>
        <time>2018-12-28T08:16:57Z</time>
      </trkpt>
      <trkpt lat="35.211230" lon="-119.164890">
        <ele>93.062</ele>
        <time>2018-12-28T08:17:17Z</time>
      </trkpt>
      <trkpt lat="35.211680" lon="-119.165360">
        <ele>93.316</ele>
        <time>2018-12-28T08:17:37Z</time>
      </trkpt>
      <trkpt lat="35.212740" lon="-119.166490">
        <ele>93.749</ele>
        <time>2018-12-28T08:17:57Z</time>
      </trkpt>
      <trkpt lat="35.217380" lon="-119.171420">
        <ele>93.443</ele>
        <time>2018-12-28T08:18:17Z</time>
      </trkpt>
      <trkpt lat="35.218720" lon="-119.172860">
        <ele>93.766</ele>
        <time>2018-12-28T08:18:37Z</time>
      </trkpt>
      <trkpt lat="35.220450" lon="-119.174690">
        <ele>93.739</ele>
        <time>2018-12-28T08:18:57Z</time>
      </trkpt>
      <trkpt lat="35.222030" lon="-119.176370">
        <ele>93.601</ele>
        <time>2018-12-28T08:19:17Z</time>
      </trkpt>
      <trkpt lat="35.226710" lon="-119.181340">
        <ele>93.721</ele>
        <time>2018-12-28T08:19:37Z</time>
      </trkpt>
      <trkpt lat="35.229090" lon="-119.183880">
        <ele>94.108</ele>
        <time>2018-12-28T08:19:57Z</time>
      </trkpt>
      <trkpt lat="35.237410" lon="-119.192720">
        <ele>95.746</ele>
        <time>2018-12-28T08:20:17Z</time>
      </trkpt>
      <trkpt lat="35.237810" lon="-119.193130">
        <ele>95.634</ele>
        <time>2018-12-28T08:20:37Z</time>
      </trkpt>
      <trkpt lat="35.238160" lon="-119.193510">
        <ele>95.659</ele>
        <time>2018-12-28T08:20:57Z</time>
      </trkpt>
      <trkpt lat="35.238670" lon="-119.194070">
        <ele>94.448</ele>
        <time>2018-12-28T08:21:17Z</time>
      </trkpt>
      <trkpt lat="35.240540" lon="-119.196050">
        <ele>95.762</ele>
        <time>2018-12-28T08:21:37Z</time>
      </trkpt>
      <trkpt lat="35.244280" lon="-119.200030">
        <ele>95.055</ele>
        <time>2018-12-28T08:21:57Z</time>
      </trkpt>
      <trkpt lat="35.245260" lon="-119.201070">
        <ele>95.369</ele>
        <time>2018-12-28T08:22:17Z</time>
      </trkpt>
      <trkpt lat="35.246680" lon="-119.202580">
        <ele>95.072</ele>
        <time>2018-12-28T08:22:37Z</time>
      </trkpt>
      <trkpt lat="35.248010" lon="-119.203990">
        <ele>94.984</ele>
        <time>2018-12-28T08:22:57Z</time>
      </trkpt>
      <trkpt lat="35.248450" lon="-119.204470">
        <ele>94.907</ele>
        <time>2018-12-28T08:23:17Z</time>
      </trkpt>
      <trkpt lat="35.248680" lon="-119.204720">
        <ele>94.917</ele>
        <time>2018-12-28T08:23:37Z</time>
      </trkpt>
      <trkpt lat="35.249270" lon="-119.205330">
        <ele>95.008</ele>
        <time>2018-12-28T08:23:57Z</time>
      </trkpt>
      <trkpt lat="35.249960" lon="-119.206070">
        <ele>95.031</ele>
        <time>2018-12-28T08:24:17Z</time>
      </trkpt>
      <trkpt lat="35.251890" lon="-119.208130">
        <ele>94.049</ele>
        <time>2018-12-28T08:24:37Z</time>
      </trkpt>
      <trkpt lat="35.252090" lon="-119.208330">
        <ele>94.794</ele>
        <time>2018-12-28T08:24:57Z</time>
      </trkpt>
      <trkpt lat="35.252950" lon="-119.209260">
        <ele>95.313</ele>
        <time>2018-12-28T08:25:17Z</time>
      </trkpt>
      <trkpt lat="35.253530" lon="-119.209870">
        <ele>95.357</ele>
        <time>2018-12-28T08:25:37Z</time>
      </trkpt>
      <trkpt lat="35.254460" lon="-119.210860">
        <ele>95.490</ele>
        <time>2018-12-28T08:25:57Z</time>
      </trkpt>
      <trkpt lat="35.254920" lon="-119.211350">
        <ele>95.564</ele>
        <time>2018-12-28T08:26:17Z</time>
      </trkpt>
      <trkpt lat="35.255540" lon="-119.212020">
        <ele>95.497</ele>
        <time>2018-12-28T08:26:37Z</time>
      </trkpt>
      <trkpt lat="35.258060" lon="-119.214690">
        <ele>95.344</ele>
        <time>2018-12-28T08:26:57Z</time>
      </trkpt>
      <trkpt lat="35.262370" lon="-119.219280">
        <ele>95.405</ele>
        <time>2018-12-28T08:27:17Z</time>
      </trkpt>
      <trkpt lat="35.262620" lon="-119.219560">
        <ele>95.415</ele>
        <time>2018-12-28T08:27:37Z</time>
      </trkpt>
      <trkpt lat="35.263420" lon="-119.220400">
        <ele>95.508</ele>
        <time>2018-12-28T08:27:57Z</time>
      </trkpt>
      <trkpt lat="35.263600" lon="-119.220600">
        <ele>95.537</ele>
        <time>2018-12-28T08:28:17Z</time>
      </trkpt>
      <trkpt lat="35.266480" lon="-119.223650">
        <ele>95.735</ele>
        <time>2018-12-28T08:28:37Z</time>
      </trkpt>
      <trkpt lat="35.267100" lon="-119.224310">
        <ele>95.830</ele>
        <time>2018-12-28T08:28:57Z</time>
      </trkpt>
      <trkpt lat="35.267490" lon="-119.224730">
        <ele>95.959</ele>
        <time>2018-12-28T08:29:17Z</time>
      </trkpt>
      <trkpt lat="35.268940" lon="-119.226270">
        <ele>96.163</ele>
        <time>2018-12-28T08:29:37Z</time>
      </trkpt>
      <trkpt lat="35.269270" lon="-119.226610">
        <ele>95.946</ele>
        <time>2018-12-28T08:29:57Z</time>
      </trkpt>
      <trkpt lat="35.270290" lon="-119.227720">
        <ele>95.570</ele>
        <time>2018-12-28T08:30:17Z</time>
      </trkpt>
      <trkpt lat="35.277080" lon="-119.234950">
        <ele>96.323</ele>
        <time>2018-12-28T08:30:37Z</time>
      </trkpt>
      <trkpt lat="35.281930" lon="-119.240110">
        <ele>95.358</ele>
        <time>2018-12-28T08:30:57Z</time>
      </trkpt>
      <trkpt lat="35.282740" lon="-119.240970">
        <ele>95.652</ele>
        <time>2018-12-28T08:31:17Z</time>
      </trkpt>
      <trkpt lat="35.283830" lon="-119.242140">
        <ele>95.617</ele>
        <time>2018-12-28T08:31:37Z</time>
      </trkpt>
      <trkpt lat="35.284080" lon="-119.242400">
        <ele>96.008</ele>
        <time>2018-12-28T08:31:57Z</time>
      </trkpt>
      <trkpt lat="35.284820" lon="-119.243190">
        <ele>96.818</ele>
        <time>2018-12-28T08:32:17Z</time>
      </trkpt>
      <trkpt lat="35.285190" lon="-119.243580">
        <ele>96.886</ele>
        <time>2018-12-28T08:32:37Z</time>
      </trkpt>
      <trkpt lat="35.285930" lon="-119.244380">
        <ele>96.511</ele>
        <time>2018-12-28T08:32:57Z</time>
      </trkpt>
      <trkpt lat="35.287800" lon="-119.246360">
        <ele>95.680</ele>
        <time>2018-12-28T08:33:17Z</time>
      </trkpt>
      <trkpt lat="35.290540" lon="-119.249290">
        <ele>96.884</ele>
        <time>2018-12-28T08:33:37Z</time>
      </trkpt>
      <trkpt lat="35.290810" lon="-119.249570">
        <ele>96.977</ele>
        <time>2018-12-28T08:33:57Z</time>
      </trkpt>
      <trkpt lat="35.292220" lon="-119.251080">
        <ele>96.711</ele>
        <time>2018-12-28T08:34:17Z</time>
      </trkpt>
      <trkpt lat="35.292550" lon="-119.251430">
        <ele>96.994</ele>
        <time>2018-12-28T08:34:37Z</time>
      </trkpt>
      <trkpt lat="35.293000" lon="-119.251910">
        <ele>97.544</ele>
        <time>2018-12-28T08:34:57Z</time>
      </trkpt>
      <trkpt lat="35.293530" lon="-119.252470">
        <ele>97.105</ele>
        <time>2018-12-28T08:35:17Z</time>
      </trkpt>
      <trkpt lat="35.293760" lon="-119.252720">
        <ele>96.915</ele>
        <time>2018-12-28T08:35:37Z</time>
      </trkpt>
      <trkpt lat="35.294150" lon="-119.253130">
        <ele>96.808</ele>
        <time>2018-12-28T08:35:57Z</time>
      </trkpt>
      <trkpt lat="35.294240" lon="-119.253230">
        <ele>96.897</ele>
        <time>2018-12-28T08:36:17Z</time>
      </trkpt>
      <trkpt lat="35.294640" lon="-119.253660">
        <ele>97.095</ele>
        <time>2018-12-28T08:36:37Z</time>
      </trkpt>
      <trkpt lat="35.295060" lon="-119.254100">
        <ele>96.920</ele>
        <time>2018-12-28T08:36:57Z</time>
      </trkpt>
      <trkpt lat="35.295870" lon="-119.254980">
        <ele>96.889</ele>
        <time>2018-12-28T08:37:17Z</time>
      </trkpt>
      <trkpt lat="35.296230" lon="-119.255360">
        <ele>96.833</ele>
        <time>2018-12-28T08:37:37Z</time>
      </trkpt>
      <trkpt lat="35.296450" lon="-119.255610">
        <ele>96.896</ele>
        <time>2018-12-28T08:37:57Z</time>
      </trkpt>
      <trkpt lat="35.296720" lon="-119.255900">
        <ele>96.880</ele>
        <time>2018-12-28T08:38:17Z</time>
      </trkpt>
      <trkpt lat="35.296750" lon="-119.255940">
        <ele>96.833</ele>
        <time>2018-12-28T08:38:37Z</time>
      </trkpt>
      <trkpt lat="35.296900" lon="-119.256100">
        <ele>96.888</ele>
        <time>2018-12-28T08:38:57Z</time>
      </trkpt>
      <trkpt lat="35.297580" lon="-119.256900">
        <ele>98.424</ele>
        <time>2018-12-28T08:39:17Z</time>
      </trkpt>
      <trkpt lat="35.297770" lon="-119.257120">
        <ele>97.426</ele>
        <time>2018-12-28T08:39:37Z</time>
      </trkpt>
      <trkpt lat="35.297940" lon="-119.257320">
        <ele>96.808</ele>
        <time>2018-12-28T08:39:57Z</time>
      </trkpt>
      <trkpt lat="35.298500" lon="-119.257990">
        <ele>97.041</ele>
        <time>2018-12-28T08:40:17Z</time>
      </trkpt>
      <trkpt lat="35.298980" lon="-119.258580">
        <ele>97.089</ele>
        <time>2018-12-28T08:40:37Z</time>
      </trkpt>
      <trkpt lat="35.301420" lon="-119.261720">
        <ele>97.024</ele>
        <time>2018-12-28T08:40:57Z</time>
      </trkpt>
      <trkpt lat="35.301820" lon="-119.262230">
        <ele>96.923</ele>
        <time>2018-12-28T08:41:17Z</time>
      </trkpt>
      <trkpt lat="35.302050" lon="-119.262520">
        <ele>96.547</ele>
        <time>2018-12-28T08:41:37Z</time>
      </trkpt>
      <trkpt lat="35.303560" lon="-119.264480">
        <ele>96.850</ele>
        <time>2018-12-28T08:41:57Z</time>
      </trkpt>
      <trkpt lat="35.304360" lon="-119.265500">
        <ele>96.744</ele>
        <time>2018-12-28T08:42:17Z</time>
      </trkpt>
      <trkpt lat="35.305090" lon="-119.266450">
        <ele>96.857</ele>
        <time>2018-12-28T08:42:37Z</time>
      </trkpt>
      <trkpt lat="35.305370" lon="-119.266800">
        <ele>96.886</ele>
        <time>2018-12-28T08:42:57Z</time>
      </trkpt>
      <trkpt lat="35.305910" lon="-119.267500">
        <ele>96.960</ele>
        <time>2018-12-28T08:43:17Z</time>
      </trkpt>
      <trkpt lat="35.306720" lon="-119.268530">
        <ele>96.826</ele>
        <time>2018-12-28T08:43:37Z</time>
      </trkpt>
      <trkpt lat="35.307710" lon="-119.269810">
        <ele>96.508</ele>
        <time>2018-12-28T08:43:57Z</time>
      </trkpt>
      <trkpt lat="35.308800" lon="-119.271210">
        <ele>95.631</ele>
        <time>2018-12-28T08:44:17Z</time>
      </trkpt>
      <trkpt lat="35.309980" lon="-119.272720">
        <ele>96.649</ele>
        <time>2018-12-28T08:44:37Z</time>
      </trkpt>
      <trkpt lat="35.310500" lon="-119.273400">
        <ele>96.154</ele>
        <time>2018-12-28T08:44:57Z</time>
      </trkpt>
      <trkpt lat="35.310910" lon="-119.273920">
        <ele>96.143</ele>
        <time>2018-12-28T08:45:17Z</time>
      </trkpt>
      <trkpt lat="35.311340" lon="-119.274480">
        <ele>96.057</ele>
        <time>2018-12-28T08:45:37Z</time>
      </trkpt>
      <trkpt lat="35.311460" lon="-119.274640">
        <ele>96.080</ele>
        <time>2018-12-28T08:45:57Z</time>
      </trkpt>
      <trkpt lat="35.311650" lon="-119.274880">
        <ele>96.024</ele>
        <time>2018-12-28T08:46:17Z</time>
      </trkpt>
      <trkpt lat="35.311830" lon="-119.275110">
        <ele>95.957</ele>
        <time>2018-12-28T08:46:37Z</time>
      </trkpt>
      <trkpt lat="35.312750" lon="-119.276330">
        <ele>95.722</ele>
        <time>2018-12-28T08:46:57Z</time>
      </trkpt>
      <trkpt lat="35.313100" lon="-119.276800">
        <ele>95.662</ele>
        <time>2018-12-28T08:47:17Z</time>
      </trkpt>
      <trkpt lat="35.313400" lon="-119.277200">
        <ele>95.508</ele>
        <time>2018-12-28T08:47:37Z</time>
      </trkpt>
      <trkpt lat="35.314060" lon="-119.278100">
        <ele>95.408</ele>
        <time>2018-12-28T08:47:57Z</time>
      </trkpt>
      <trkpt lat="35.314700" lon="-119.278990">
        <ele>95.345</ele>
        <time>2018-12-28T08:48:17Z</time>
      </trkpt>
      <trkpt lat="35.315750" lon="-119.280470">
        <ele>95.483</ele>
        <time>2018-12-28T08:48:37Z</time>
      </trkpt>
      <trkpt lat="35.318000" lon="-119.283650">
        <ele>96.398</ele>
        <time>2018-12-28T08:48:57Z</time>
      </trkpt>
      <trkpt lat="35.318580" lon="-119.284460">
        <ele>96.337</ele>
        <time>2018-12-28T08:49:17Z</time>
      </trkpt>
      <trkpt lat="35.319660" lon="-119.285980">
        <ele>95.391</ele>
        <time>2018-12-28T08:49:37Z</time>
      </trkpt>
      <trkpt lat="35.320110" lon="-119.286610">
        <ele>95.374</ele>
        <time>2018-12-28T08:49:57Z</time>
      </trkpt>
      <trkpt lat="35.320930" lon="-119.287770">
        <ele>94.568</ele>
        <time>2018-12-28T08:50:17Z</time>
      </trkpt>
      <trkpt lat="35.322200" lon="-119.289560">
        <ele>94.911</ele>
        <time>2018-12-28T08:50:37Z</time>
      </trkpt>
      <trkpt lat="35.323070" lon="-119.290780">
        <ele>95.338</ele>
        <time>2018-12-28T08:50:57Z</time>
      </trkpt>
      <trkpt lat="35.323980" lon="-119.292060">
        <ele>95.370</ele>
        <time>2018-12-28T08:51:17Z</time>
      </trkpt>
      <trkpt lat="35.325090" lon="-119.293630">
        <ele>95.117</ele>
        <time>2018-12-28T08:51:37Z</time>
      </trkpt>
      <trkpt lat="35.325790" lon="-119.294620">
        <ele>94.808</ele>
        <time>2018-12-28T08:51:57Z</time>
      </trkpt>
      <trkpt lat="35.326370" lon="-119.295430">
        <ele>94.586</ele>
        <time>2018-12-28T08:52:17Z</time>
      </trkpt>
      <trkpt lat="35.327420" lon="-119.296910">
        <ele>94.194</ele>
        <time>2018-12-28T08:52:37Z</time>
      </trkpt>
      <trkpt lat="35.328340" lon="-119.298210">
        <ele>94.139</ele>
        <time>2018-12-28T08:52:57Z</time>
      </trkpt>
      <trkpt lat="35.329640" lon="-119.300040">
        <ele>94.068</ele>
        <time>2018-12-28T08:53:17Z</time>
      </trkpt>
      <trkpt lat="35.330790" lon="-119.301660">
        <ele>93.972</ele>
        <time>2018-12-28T08:53:37Z</time>
      </trkpt>
      <trkpt lat="35.331570" lon="-119.302750">
        <ele>93.895</ele>
        <time>2018-12-28T08:53:57Z</time>
      </trkpt>
      <trkpt lat="35.331980" lon="-119.303330">
        <ele>93.739</ele>
        <time>2018-12-28T08:54:17Z</time>
      </trkpt>
      <trkpt lat="35.332080" lon="-119.303470">
        <ele>93.762</ele>
        <time>2018-12-28T08:54:37Z</time>
      </trkpt>
      <trkpt lat="35.332390" lon="-119.303900">
        <ele>93.781</ele>
        <time>2018-12-28T08:54:57Z</time>
      </trkpt>
      <trkpt lat="35.333510" lon="-119.305490">
        <ele>93.861</ele>
        <time>2018-12-28T08:55:17Z</time>
      </trkpt>
      <trkpt lat="35.334890" lon="-119.307440">
        <ele>93.617</ele>
        <time>2018-12-28T08:55:37Z</time>
      </trkpt>
      <trkpt lat="35.336130" lon="-119.309180">
        <ele>93.708</ele>
        <time>2018-12-28T08:55:57Z</time>
      </trkpt>
      <trkpt lat="35.336980" lon="-119.310360">
        <ele>93.921</ele>
        <time>2018-12-28T08:56:17Z</time>
      </trkpt>
      <trkpt lat="35.337890" lon="-119.311660">
        <ele>93.839</ele>
        <time>2018-12-28T08:56:37Z</time>
      </trkpt>
      <trkpt lat="35.338550" lon="-119.312580">
        <ele>93.724</ele>
        <time>2018-12-28T08:56:57Z</time>
      </trkpt>
      <trkpt lat="35.339030" lon="-119.313270">
        <ele>93.543</ele>
        <time>2018-12-28T08:57:17Z</time>
      </trkpt>
      <trkpt lat="35.339530" lon="-119.313980">
        <ele>93.337</ele>
        <time>2018-12-28T08:57:37Z</time>
      </trkpt>
      <trkpt lat="35.339890" lon="-119.314490">
        <ele>93.210</ele>
        <time>2018-12-28T08:57:57Z</time>
      </trkpt>
      <trkpt lat="35.340170" lon="-119.314880">
        <ele>93.154</ele>
        <time>2018-12-28T08:58:17Z</time>
      </trkpt>
      <trkpt lat="35.340770" lon="-119.315720">
        <ele>92.937</ele>
        <time>2018-12-28T08:58:37Z</time>
      </trkpt>
      <trkpt lat="35.341490" lon="-119.316740">
        <ele>92.838</ele>
        <time>2018-12-28T08:58:57Z</time>
      </trkpt>
      <trkpt lat="35.342080" lon="-119.317570">
        <ele>92.870</ele>
        <time>2018-12-28T08:59:17Z</time>
      </trkpt>
      <trkpt lat="35.342720" lon="-119.318470">
        <ele>92.717</ele>
        <time>2018-12-28T08:59:37Z</time>
      </trkpt>
      <trkpt lat="35.343410" lon="-119.319440">
        <ele>92.508</ele>
        <time>2018-12-28T08:59:57Z</time>
      </trkpt>
      <trkpt lat="35.344270" lon="-119.320660">
        <ele>92.866</ele>
        <time>2018-12-28T09:00:17Z</time>
      </trkpt>
      <trkpt lat="35.345170" lon="-119.321920">
        <ele>92.974</ele>
        <time>2018-12-28T09:00:37Z</time>
      </trkpt>
      <trkpt lat="35.346330" lon="-119.323560">
        <ele>92.529</ele>
        <time>2018-12-28T09:00:57Z</time>
      </trkpt>
      <trkpt lat="35.346530" lon="-119.323840">
        <ele>92.368</ele>
        <time>2018-12-28T09:01:17Z</time>
      </trkpt>
      <trkpt lat="35.346740" lon="-119.324140">
        <ele>92.322</ele>
        <time>2018-12-28T09:01:37Z</time>
      </trkpt>
      <trkpt lat="35.346950" lon="-119.324440">
        <ele>92.495</ele>
        <time>2018-12-28T09:01:57Z</time>
      </trkpt>
      <trkpt lat="35.347270" lon="-119.324900">
        <ele>92.999</ele>
        <time>2018-12-28T09:02:17Z</time>
      </trkpt>
      <trkpt lat="35.347690" lon="-119.325470">
        <ele>93.452</ele>
        <time>2018-12-28T09:02:37Z</time>
      </trkpt>
      <trkpt lat="35.347910" lon="-119.325790">
        <ele>93.544</ele>
        <time>2018-12-28T09:02:57Z</time>
      </trkpt>
      <trkpt lat="35.348220" lon="-119.326220">
        <ele>93.605</ele>
        <time>2018-12-28T09:03:17Z</time>
      </trkpt>
      <trkpt lat="35.348460" lon="-119.326570">
        <ele>93.515</ele>
        <time>2018-12-28T09:03:37Z</time>
      </trkpt>
      <trkpt lat="35.348860" lon="-119.327130">
        <ele>93.108</ele>
        <time>2018-12-28T09:03:57Z</time>
      </trkpt>
      <trkpt lat="35.349050" lon="-119.327400">
        <ele>93.037</ele>
        <time>2018-12-28T09:04:17Z</time>
      </trkpt>
      <trkpt lat="35.349310" lon="-119.327770">
        <ele>92.925</ele>
        <time>2018-12-28T09:04:37Z</time>
      </trkpt>
      <trkpt lat="35.349590" lon="-119.328160">
        <ele>92.730</ele>
        <time>2018-12-28T09:04:57Z</time>
      </trkpt>
      <trkpt lat="35.349880" lon="-119.328570">
        <ele>92.689</ele>
        <time>2018-12-28T09:05:17Z</time>
      </trkpt>
      <trkpt lat="35.350100" lon="-119.328890">
        <ele>92.523</ele>
        <time>2018-12-28T09:05:37Z</time>
      </trkpt>
      <trkpt lat="35.350560" lon="-119.329540">
        <ele>92.396</ele>
        <time>2018-12-28T09:05:57Z</time>
      </trkpt>
      <trkpt lat="35.351070" lon="-119.330240">
        <ele>92.210</ele>
        <time>2018-12-28T09:06:17Z</time>
      </trkpt>
      <trkpt lat="35.351310" lon="-119.330600">
        <ele>92.133</ele>
        <time>2018-12-28T09:06:37Z</time>
      </trkpt>
      <trkpt lat="35.351640" lon="-119.331050">
        <ele>92.154</ele>
        <time>2018-12-28T09:06:57Z</time>
      </trkpt>
      <trkpt lat="35.352120" lon="-119.331720">
        <ele>92.156</ele>
        <time>2018-12-28T09:07:17Z</time>
      </trkpt>
      <trkpt lat="35.352250" lon="-119.331910">
        <ele>92.111</ele>
        <time>2018-12-28T09:07:37Z</time>
      </trkpt>
      <trkpt lat="35.352480" lon="-119.332220">
        <ele>92.208</ele>
        <time>2018-12-28T09:07:57Z</time>
      </trkpt>
      <trkpt lat="35.353750" lon="-119.334030">
        <ele>92.568</ele>
        <time>2018-12-28T09:08:17Z</time>
      </trkpt>
      <trkpt lat="35.354490" lon="-119.335070">
        <ele>92.416</ele>
        <time>2018-12-28T09:08:37Z</time>
      </trkpt>
      <trkpt lat="35.354790" lon="-119.335490">
        <ele>92.411</ele>
        <time>2018-12-28T09:08:57Z</time>
      </trkpt>
      <trkpt lat="35.354960" lon="-119.335730">
        <ele>92.440</ele>
        <time>2018-12-28T09:09:17Z</time>
      </trkpt>
      <trkpt lat="35.355040" lon="-119.335850">
        <ele>92.444</ele>
        <time>2018-12-28T09:09:37Z</time>
      </trkpt>
      <trkpt lat="35.355300" lon="-119.336220">
        <ele>92.357</ele>
        <time>2018-12-28T09:09:57Z</time>
      </trkpt>
      <trkpt lat="35.355440" lon="-119.336420">
        <ele>92.351</ele>
        <time>2018-12-28T09:10:17Z</time>
      </trkpt>
      <trkpt lat="35.356850" lon="-119.338400">
        <ele>92.214</ele>
        <time>2018-12-28T09:10:37Z</time>
      </trkpt>
      <trkpt lat="35.357070" lon="-119.338710">
        <ele>92.286</ele>
        <time>2018-12-28T09:10:57Z</time>
      </trkpt>
      <trkpt lat="35.357130" lon="-119.338790">
        <ele>92.260</ele>
        <time>2018-12-28T09:11:17Z</time>
      </trkpt>
      <trkpt lat="35.357380" lon="-119.339150">
        <ele>92.226</ele>
        <time>2018-12-28T09:11:37Z</time>
      </trkpt>
      <trkpt lat="35.357580" lon="-119.339430">
        <ele>92.208</ele>
        <time>2018-12-28T09:11:57Z</time>
      </trkpt>
      <trkpt lat="35.357880" lon="-119.339840">
        <ele>92.371</ele>
        <time>2018-12-28T09:12:17Z</time>
      </trkpt>
      <trkpt lat="35.358230" lon="-119.340350">
        <ele>92.219</ele>
        <time>2018-12-28T09:12:37Z</time>
      </trkpt>
      <trkpt lat="35.358840" lon="-119.341220">
        <ele>91.694</ele>
        <time>2018-12-28T09:12:57Z</time>
      </trkpt>
      <trkpt lat="35.360370" lon="-119.343440">
        <ele>91.193</ele>
        <time>2018-12-28T09:13:17Z</time>
      </trkpt>
      <trkpt lat="35.361060" lon="-119.344430">
        <ele>90.727</ele>
        <time>2018-12-28T09:13:37Z</time>
      </trkpt>
      <trkpt lat="35.361830" lon="-119.345500">
        <ele>90.740</ele>
        <time>2018-12-28T09:13:57Z</time>
      </trkpt>
      <trkpt lat="35.362010" lon="-119.345760">
        <ele>90.714</ele>
        <time>2018-12-28T09:14:17Z</time>
      </trkpt>
      <trkpt lat="35.362280" lon="-119.346140">
        <ele>90.887</ele>
        <time>2018-12-28T09:14:37Z</time>
      </trkpt>
      <trkpt lat="35.363010" lon="-119.347160">
        <ele>90.858</ele>
        <time>2018-12-28T09:14:57Z</time>
      </trkpt>
      <trkpt lat="35.363550" lon="-119.347930">
        <ele>90.752</ele>
        <time>2018-12-28T09:15:17Z</time>
      </trkpt>
      <trkpt lat="35.364180" lon="-119.348820">
        <ele>90.717</ele>
        <time>2018-12-28T09:15:37Z</time>
      </trkpt>
      <trkpt lat="35.364790" lon="-119.349640">
        <ele>90.708</ele>
        <time>2018-12-28T09:15:57Z</time>
      </trkpt>
      <trkpt lat="35.365640" lon="-119.350810">
        <ele>90.898</ele>
        <time>2018-12-28T09:16:17Z</time>
      </trkpt>
      <trkpt lat="35.365850" lon="-119.351110">
        <ele>90.856</ele>
        <time>2018-12-28T09:16:37Z</time>
      </trkpt>
      <trkpt lat="35.366710" lon="-119.352330">
        <ele>90.891</ele>
        <time>2018-12-28T09:16:57Z</time>
      </trkpt>
      <trkpt lat="35.367430" lon="-119.353340">
        <ele>90.780</ele>
        <time>2018-12-28T09:17:17Z</time>
      </trkpt>
      <trkpt lat="35.368960" lon="-119.355490">
        <ele>90.774</ele>
        <time>2018-12-28T09:17:37Z</time>
      </trkpt>
      <trkpt lat="35.371660" lon="-119.359280">
        <ele>90.697</ele>
        <time>2018-12-28T09:17:57Z</time>
      </trkpt>
      <trkpt lat="35.373210" lon="-119.361490">
        <ele>90.331</ele>
        <time>2018-12-28T09:18:17Z</time>
      </trkpt>
      <trkpt lat="35.374810" lon="-119.363730">
        <ele>89.654</ele>
        <time>2018-12-28T09:18:37Z</time>
      </trkpt>
      <trkpt lat="35.376210" lon="-119.365680">
        <ele>90.022</ele>
        <time>2018-12-28T09:18:57Z</time>
      </trkpt>
      <trkpt lat="35.382390" lon="-119.374250">
        <ele>89.362</ele>
        <time>2018-12-28T09:19:17Z</time>
      </trkpt>
      <trkpt lat="35.384560" lon="-119.377270">
        <ele>89.208</ele>
        <time>2018-12-28T09:19:37Z</time>
      </trkpt>
      <trkpt lat="35.386620" lon="-119.380090">
        <ele>89.308</ele>
        <time>2018-12-28T09:19:57Z</time>
      </trkpt>
      <trkpt lat="35.387980" lon="-119.381970">
        <ele>89.235</ele>
        <time>2018-12-28T09:20:17Z</time>
      </trkpt>
      <trkpt lat="35.392460" lon="-119.388260">
        <ele>89.183</ele>
        <time>2018-12-28T09:20:37Z</time>
      </trkpt>
      <trkpt lat="35.398470" lon="-119.396530">
        <ele>89.798</ele>
        <time>2018-12-28T09:20:57Z</time>
      </trkpt>
      <trkpt lat="35.398550" lon="-119.396630">
        <ele>89.897</ele>
        <time>2018-12-28T09:21:17Z</time>
      </trkpt>
      <trkpt lat="35.398910" lon="-119.397130">
        <ele>89.811</ele>
        <time>2018-12-28T09:21:37Z</time>
      </trkpt>
      <trkpt lat="35.398970" lon="-119.397220">
        <ele>89.884</ele>
        <time>2018-12-28T09:21:57Z</time>
      </trkpt>
      <trkpt lat="35.399340" lon="-119.397690">
        <ele>89.878</ele>
        <time>2018-12-28T09:22:17Z</time>
      </trkpt>
      <trkpt lat="35.399660" lon="-119.398120">
        <ele>89.931</ele>
        <time>2018-12-28T09:22:37Z</time>
      </trkpt>
      <trkpt lat="35.400070" lon="-119.398660">
        <ele>89.968</ele>
        <time>2018-12-28T09:22:57Z</time>
      </trkpt>
      <trkpt lat="35.400560" lon="-119.399330">
        <ele>89.842</ele>
        <time>2018-12-28T09:23:17Z</time>
      </trkpt>
      <trkpt lat="35.400990" lon="-119.399910">
        <ele>89.626</ele>
        <time>2018-12-28T09:23:37Z</time>
      </trkpt>
      <trkpt lat="35.401390" lon="-119.400450">
        <ele>89.408</ele>
        <time>2018-12-28T09:23:57Z</time>
      </trkpt>
      <trkpt lat="35.401400" lon="-119.400470">
        <ele>89.429</ele>
        <time>2018-12-28T09:24:17Z</time>
      </trkpt>
      <trkpt lat="35.401990" lon="-119.401280">
        <ele>89.397</ele>
        <time>2018-12-28T09:24:37Z</time>
      </trkpt>
      <trkpt lat="35.402420" lon="-119.401840">
        <ele>89.582</ele>
        <time>2018-12-28T09:24:57Z</time>
      </trkpt>
      <trkpt lat="35.402940" lon="-119.402550">
        <ele>89.661</ele>
        <time>2018-12-28T09:25:17Z</time>
      </trkpt>
      <trkpt lat="35.414330" lon="-119.418140">
        <ele>90.695</ele>
        <time>2018-12-28T09:25:37Z</time>
      </trkpt>
      <trkpt lat="35.415210" lon="-119.419350">
        <ele>90.528</ele>
        <time>2018-12-28T09:25:57Z</time>
      </trkpt>
      <trkpt lat="35.419680" lon="-119.425460">
        <ele>90.752</ele>
        <time>2018-12-28T09:26:17Z</time>
      </trkpt>
      <trkpt lat="35.420010" lon="-119.425910">
        <ele>90.615</ele>
        <time>2018-12-28T09:26:37Z</time>
      </trkpt>
      <trkpt lat="35.420530" lon="-119.426620">
        <ele>90.484</ele>
        <time>2018-12-28T09:26:57Z</time>
      </trkpt>
      <trkpt lat="35.425950" lon="-119.434040">
        <ele>91.507</ele>
        <time>2018-12-28T09:27:17Z</time>
      </trkpt>
      <trkpt lat="35.427270" lon="-119.435850">
        <ele>90.617</ele>
        <time>2018-12-28T09:27:37Z</time>
      </trkpt>
      <trkpt lat="35.428060" lon="-119.436940">
        <ele>90.708</ele>
        <time>2018-12-28T09:27:57Z</time>
      </trkpt>
      <trkpt lat="35.428770" lon="-119.437930">
        <ele>90.671</ele>
        <time>2018-12-28T09:28:17Z</time>
      </trkpt>
      <trkpt lat="35.431560" lon="-119.441750">
        <ele>90.689</ele>
        <time>2018-12-28T09:28:37Z</time>
      </trkpt>
      <trkpt lat="35.435480" lon="-119.447150">
        <ele>90.024</ele>
        <time>2018-12-28T09:28:57Z</time>
      </trkpt>
      <trkpt lat="35.439860" lon="-119.453170">
        <ele>87.733</ele>
        <time>2018-12-28T09:29:17Z</time>
      </trkpt>
      <trkpt lat="35.440690" lon="-119.454320">
        <ele>87.947</ele>
        <time>2018-12-28T09:29:37Z</time>
      </trkpt>
      <trkpt lat="35.449030" lon="-119.465800">
        <ele>86.880</ele>
        <time>2018-12-28T09:29:57Z</time>
      </trkpt>
      <trkpt lat="35.455120" lon="-119.474170">
        <ele>86.034</ele>
        <time>2018-12-28T09:30:17Z</time>
      </trkpt>
      <trkpt lat="35.455900" lon="-119.475260">
        <ele>85.957</ele>
        <time>2018-12-28T09:30:37Z</time>
      </trkpt>
      <trkpt lat="35.457990" lon="-119.478140">
        <ele>84.611</ele>
        <time>2018-12-28T09:30:57Z</time>
      </trkpt>
      <trkpt lat="35.458290" lon="-119.478550">
        <ele>84.621</ele>
        <time>2018-12-28T09:31:17Z</time>
      </trkpt>
      <trkpt lat="35.458870" lon="-119.479340">
        <ele>84.503</ele>
        <time>2018-12-28T09:31:37Z</time>
      </trkpt>
      <trkpt lat="35.475300" lon="-119.501970">
        <ele>82.208</ele>
        <time>2018-12-28T09:31:57Z</time>
      </trkpt>
      <trkpt lat="35.475660" lon="-119.502480">
        <ele>82.254</ele>
        <time>2018-12-28T09:32:17Z</time>
      </trkpt>
      <trkpt lat="35.476630" lon="-119.503840">
        <ele>82.312</ele>
        <time>2018-12-28T09:32:37Z</time>
      </trkpt>
      <trkpt lat="35.477510" lon="-119.505060">
        <ele>82.237</ele>
        <time>2018-12-28T09:32:57Z</time>
      </trkpt>
      <trkpt lat="35.482030" lon="-119.511290">
        <ele>83.296</ele>
        <time>2018-12-28T09:33:17Z</time>
      </trkpt>
      <trkpt lat="35.482630" lon="-119.512110">
        <ele>83.670</ele>
        <time>2018-12-28T09:33:37Z</time>
      </trkpt>
      <trkpt lat="35.483780" lon="-119.513710">
        <ele>84.233</ele>
        <time>2018-12-28T09:33:57Z</time>
      </trkpt>
      <trkpt lat="35.485370" lon="-119.515890">
        <ele>84.377</ele>
        <time>2018-12-28T09:34:17Z</time>
      </trkpt>
      <trkpt lat="35.487400" lon="-119.518680">
        <ele>84.240</ele>
        <time>2018-12-28T09:34:37Z</time>
      </trkpt>
      <trkpt lat="35.488900" lon="-119.520750">
        <ele>84.039</ele>
        <time>2018-12-28T09:34:57Z</time>
      </trkpt>
      <trkpt lat="35.490580" lon="-119.523070">
        <ele>84.101</ele>
        <time>2018-12-28T09:35:17Z</time>
      </trkpt>
      <trkpt lat="35.491010" lon="-119.523660">
        <ele>84.121</ele>
        <time>2018-12-28T09:35:37Z</time>
      </trkpt>
      <trkpt lat="35.492690" lon="-119.525980">
        <ele>84.308</ele>
        <time>2018-12-28T09:35:57Z</time>
      </trkpt>
      <trkpt lat="35.493580" lon="-119.527210">
        <ele>84.316</ele>
        <time>2018-12-28T09:36:17Z</time>
      </trkpt>
      <trkpt lat="35.494170" lon="-119.528000">
        <ele>84.574</ele>
        <time>2018-12-28T09:36:37Z</time>
      </trkpt>
      <trkpt lat="35.495040" lon="-119.529110">
        <ele>84.919</ele>
        <time>2018-12-28T09:36:57Z</time>
      </trkpt>
      <trkpt lat="35.495510" lon="-119.529670">
        <ele>85.018</ele>
        <time>2018-12-28T09:37:17Z</time>
      </trkpt>
      <trkpt lat="35.495890" lon="-119.530120">
        <ele>85.072</ele>
        <time>2018-12-28T09:37:37Z</time>
      </trkpt>
      <trkpt lat="35.496390" lon="-119.530690">
        <ele>85.075</ele>
        <time>2018-12-28T09:37:57Z</time>
      </trkpt>
      <trkpt lat="35.496870" lon="-119.531220">
        <ele>85.239</ele>
        <time>2018-12-28T09:38:17Z</time>
      </trkpt>
      <trkpt lat="35.497310" lon="-119.531700">
        <ele>85.432</ele>
        <time>2018-12-28T09:38:37Z</time>
      </trkpt>
      <trkpt lat="35.497820" lon="-119.532250">
        <ele>85.632</ele>
        <time>2018-12-28T09:38:57Z</time>
      </trkpt>
      <trkpt lat="35.498460" lon="-119.532950">
        <ele>85.692</ele>
        <time>2018-12-28T09:39:17Z</time>
      </trkpt>
      <trkpt lat="35.499910" lon="-119.534520">
        <ele>85.711</ele>
        <time>2018-12-28T09:39:37Z</time>
      </trkpt>
      <trkpt lat="35.500730" lon="-119.535410">
        <ele>85.408</ele>
        <time>2018-12-28T09:39:57Z</time>
      </trkpt>
      <trkpt lat="35.502050" lon="-119.536850">
        <ele>85.956</ele>
        <time>2018-12-28T09:40:17Z</time>
      </trkpt>
      <trkpt lat="35.502240" lon="-119.537040">
        <ele>86.024</ele>
        <time>2018-12-28T09:40:37Z</time>
      </trkpt>
      <trkpt lat="35.502500" lon="-119.537340">
        <ele>86.039</ele>
        <time>2018-12-28T09:40:57Z</time>
      </trkpt>
      <trkpt lat="35.503210" lon="-119.538100">
        <ele>86.338</ele>
        <time>2018-12-28T09:41:17Z</time>
      </trkpt>
      <trkpt lat="35.503680" lon="-119.538620">
        <ele>86.582</ele>
        <time>2018-12-28T09:41:37Z</time>
      </trkpt>
      <trkpt lat="35.503950" lon="-119.538900">
        <ele>86.685</ele>
        <time>2018-12-28T09:41:57Z</time>
      </trkpt>
      <trkpt lat="35.504610" lon="-119.539630">
        <ele>86.789</ele>
        <time>2018-12-28T09:42:17Z</time>
      </trkpt>
      <trkpt lat="35.505370" lon="-119.540460">
        <ele>86.932</ele>
        <time>2018-12-28T09:42:37Z</time>
      </trkpt>
      <trkpt lat="35.506450" lon="-119.541630">
        <ele>87.084</ele>
        <time>2018-12-28T09:42:57Z</time>
      </trkpt>
      <trkpt lat="35.507510" lon="-119.542780">
        <ele>87.107</ele>
        <time>2018-12-28T09:43:17Z</time>
      </trkpt>
      <trkpt lat="35.509640" lon="-119.545100">
        <ele>86.717</ele>
        <time>2018-12-28T09:43:37Z</time>
      </trkpt>
      <trkpt lat="35.510930" lon="-119.546500">
        <ele>86.708</ele>
        <time>2018-12-28T09:43:57Z</time>
      </trkpt>
      <trkpt lat="35.514100" lon="-119.549950">
        <ele>86.641</ele>
        <time>2018-12-28T09:44:17Z</time>
      </trkpt>
      <trkpt lat="35.516130" lon="-119.552160">
        <ele>86.549</ele>
        <time>2018-12-28T09:44:37Z</time>
      </trkpt>
      <trkpt lat="35.518360" lon="-119.554590">
        <ele>86.114</ele>
        <time>2018-12-28T09:44:57Z</time>
      </trkpt>
      <trkpt lat="35.521360" lon="-119.557850">
        <ele>84.633</ele>
        <time>2018-12-28T09:45:17Z</time>
      </trkpt>
      <trkpt lat="35.523110" lon="-119.559750">
        <ele>84.947</ele>
        <time>2018-12-28T09:45:37Z</time>
      </trkpt>
      <trkpt lat="35.528020" lon="-119.565100">
        <ele>85.350</ele>
        <time>2018-12-28T09:45:57Z</time>
      </trkpt>
      <trkpt lat="35.528600" lon="-119.565720">
        <ele>85.024</ele>
        <time>2018-12-28T09:46:17Z</time>
      </trkpt>
      <trkpt lat="35.529280" lon="-119.566460">
        <ele>84.867</ele>
        <time>2018-12-28T09:46:37Z</time>
      </trkpt>
      <trkpt lat="35.529380" lon="-119.566560">
        <ele>84.727</ele>
        <time>2018-12-28T09:46:57Z</time>
      </trkpt>
      <trkpt lat="35.530210" lon="-119.567480">
        <ele>84.568</ele>
        <time>2018-12-28T09:47:17Z</time>
      </trkpt>
      <trkpt lat="35.532460" lon="-119.569930">
        <ele>83.914</ele>
        <time>2018-12-28T09:47:37Z</time>
      </trkpt>
      <trkpt lat="35.533640" lon="-119.571200">
        <ele>83.708</ele>
        <time>2018-12-28T09:47:57Z</time>
      </trkpt>
      <trkpt lat="35.536340" lon="-119.574150">
        <ele>82.845</ele>
        <time>2018-12-28T09:48:17Z</time>
      </trkpt>
      <trkpt lat="35.537490" lon="-119.575410">
        <ele>82.563</ele>
        <time>2018-12-28T09:48:37Z</time>
      </trkpt>
      <trkpt lat="35.539720" lon="-119.577830">
        <ele>81.738</ele>
        <time>2018-12-28T09:48:57Z</time>
      </trkpt>
      <trkpt lat="35.542910" lon="-119.581300">
        <ele>80.777</ele>
        <time>2018-12-28T09:49:17Z</time>
      </trkpt>
      <trkpt lat="35.545700" lon="-119.584340">
        <ele>79.341</ele>
        <time>2018-12-28T09:49:37Z</time>
      </trkpt>
      <trkpt lat="35.548700" lon="-119.587600">
        <ele>77.974</ele>
        <time>2018-12-28T09:49:57Z</time>
      </trkpt>
      <trkpt lat="35.551200" lon="-119.590330">
        <ele>77.168</ele>
        <time>2018-12-28T09:50:17Z</time>
      </trkpt>
      <trkpt lat="35.553310" lon="-119.592630">
        <ele>76.771</ele>
        <time>2018-12-28T09:50:37Z</time>
      </trkpt>
      <trkpt lat="35.554190" lon="-119.593580">
        <ele>76.672</ele>
        <time>2018-12-28T09:50:57Z</time>
      </trkpt>
      <trkpt lat="35.556400" lon="-119.595990">
        <ele>76.413</ele>
        <time>2018-12-28T09:51:17Z</time>
      </trkpt>
      <trkpt lat="35.557090" lon="-119.596740">
        <ele>76.214</ele>
        <time>2018-12-28T09:51:37Z</time>
      </trkpt>
      <trkpt lat="35.557900" lon="-119.597620">
        <ele>75.508</ele>
        <time>2018-12-28T09:51:57Z</time>
      </trkpt>
      <trkpt lat="35.558230" lon="-119.597990">
        <ele>73.980</ele>
        <time>2018-12-28T09:52:17Z</time>
      </trkpt>
      <trkpt lat="35.558660" lon="-119.598460">
        <ele>74.068</ele>
        <time>2018-12-28T09:52:37Z</time>
      </trkpt>
      <trkpt lat="35.558930" lon="-119.598750">
        <ele>74.053</ele>
        <time>2018-12-28T09:52:57Z</time>
      </trkpt>
      <trkpt lat="35.560640" lon="-119.600600">
        <ele>74.032</ele>
        <time>2018-12-28T09:53:17Z</time>
      </trkpt>
      <trkpt lat="35.562730" lon="-119.602890">
        <ele>73.816</ele>
        <time>2018-12-28T09:53:37Z</time>
      </trkpt>
      <trkpt lat="35.564660" lon="-119.605000">
        <ele>73.989</ele>
        <time>2018-12-28T09:53:57Z</time>
      </trkpt>
      <trkpt lat="35.567820" lon="-119.608430">
        <ele>73.963</ele>
        <time>2018-12-28T09:54:17Z</time>
      </trkpt>
      <trkpt lat="35.568680" lon="-119.609370">
        <ele>73.896</ele>
        <time>2018-12-28T09:54:37Z</time>
      </trkpt>
      <trkpt lat="35.569190" lon="-119.609930">
        <ele>73.893</ele>
        <time>2018-12-28T09:54:57Z</time>
      </trkpt>
      <trkpt lat="35.570610" lon="-119.611430">
        <ele>73.765</ele>
        <time>2018-12-28T09:55:17Z</time>
      </trkpt>
      <trkpt lat="35.571370" lon="-119.612190">
        <ele>73.621</ele>
        <time>2018-12-28T09:55:37Z</time>
      </trkpt>
      <trkpt lat="35.572470" lon="-119.613280">
        <ele>73.608</ele>
        <time>2018-12-28T09:55:57Z</time>
      </trkpt>
      <trkpt lat="35.576090" lon="-119.616750">
        <ele>73.422</ele>
        <time>2018-12-28T09:56:17Z</time>
      </trkpt>
      <trkpt lat="35.580780" lon="-119.621250">
        <ele>73.340</ele>
        <time>2018-12-28T09:56:37Z</time>
      </trkpt>
      <trkpt lat="35.583000" lon="-119.623360">
        <ele>73.165</ele>
        <time>2018-12-28T09:56:57Z</time>
      </trkpt>
      <trkpt lat="35.584630" lon="-119.624930">
        <ele>73.024</ele>
        <time>2018-12-28T09:57:17Z</time>
      </trkpt>
      <trkpt lat="35.586750" lon="-119.626960">
        <ele>73.038</ele>
        <time>2018-12-28T09:57:37Z</time>
      </trkpt>
      <trkpt lat="35.590050" lon="-119.630130">
        <ele>72.751</ele>
        <time>2018-12-28T09:57:57Z</time>
      </trkpt>
      <trkpt lat="35.593210" lon="-119.633140">
        <ele>72.595</ele>
        <time>2018-12-28T09:58:17Z</time>
      </trkpt>
      <trkpt lat="35.598800" lon="-119.638500">
        <ele>72.348</ele>
        <time>2018-12-28T09:58:37Z</time>
      </trkpt>
      <trkpt lat="35.603320" lon="-119.642830">
        <ele>72.189</ele>
        <time>2018-12-28T09:58:57Z</time>
      </trkpt>
      <trkpt lat="35.604540" lon="-119.644000">
        <ele>72.306</ele>
        <time>2018-12-28T09:59:17Z</time>
      </trkpt>
      <trkpt lat="35.604840" lon="-119.644290">
        <ele>72.326</ele>
        <time>2018-12-28T09:59:37Z</time>
      </trkpt>
      <trkpt lat="35.605420" lon="-119.644820">
        <ele>72.008</ele>
        <time>2018-12-28T09:59:57Z</time>
      </trkpt>
      <trkpt lat="35.605970" lon="-119.645300">
        <ele>72.081</ele>
        <time>2018-12-28T10:00:17Z</time>
      </trkpt>
      <trkpt lat="35.606310" lon="-119.645590">
        <ele>72.039</ele>
        <time>2018-12-28T10:00:37Z</time>
      </trkpt>
      <trkpt lat="35.606850" lon="-119.646040">
        <ele>72.134</ele>
        <time>2018-12-28T10:00:57Z</time>
      </trkpt>
      <trkpt lat="35.607280" lon="-119.646370">
        <ele>72.123</ele>
        <time>2018-12-28T10:01:17Z</time>
      </trkpt>
      <trkpt lat="35.607960" lon="-119.646900">
        <ele>72.187</ele>
        <time>2018-12-28T10:01:37Z</time>
      </trkpt>
      <trkpt lat="35.608270" lon="-119.647130">
        <ele>72.280</ele>
        <time>2018-12-28T10:01:57Z</time>
      </trkpt>
      <trkpt lat="35.608730" lon="-119.647470">
        <ele>73.064</ele>
        <time>2018-12-28T10:02:17Z</time>
      </trkpt>
      <trkpt lat="35.609060" lon="-119.647720">
        <ele>73.377</ele>
        <time>2018-12-28T10:02:37Z</time>
      </trkpt>
      <trkpt lat="35.609630" lon="-119.648140">
        <ele>73.891</ele>
        <time>2018-12-28T10:02:57Z</time>
      </trkpt>
      <trkpt lat="35.610060" lon="-119.648460">
        <ele>73.881</ele>
        <time>2018-12-28T10:03:17Z</time>
      </trkpt>
      <trkpt lat="35.610510" lon="-119.648790">
        <ele>73.619</ele>
        <time>2018-12-28T10:03:37Z</time>
      </trkpt>
      <trkpt lat="35.610940" lon="-119.649110">
        <ele>74.408</ele>
        <time>2018-12-28T10:03:57Z</time>
      </trkpt>
      <trkpt lat="35.611740" lon="-119.649700">
        <ele>73.892</ele>
        <time>2018-12-28T10:04:17Z</time>
      </trkpt>
      <trkpt lat="35.611920" lon="-119.649840">
        <ele>74.350</ele>
        <time>2018-12-28T10:04:37Z</time>
      </trkpt>
      <trkpt lat="35.612360" lon="-119.650170">
        <ele>73.425</ele>
        <time>2018-12-28T10:04:57Z</time>
      </trkpt>
      <trkpt lat="35.612730" lon="-119.650440">
        <ele>73.484</ele>
        <time>2018-12-28T10:05:17Z</time>
      </trkpt>
      <trkpt lat="35.613260" lon="-119.650830">
        <ele>73.798</ele>
        <time>2018-12-28T10:05:37Z</time>
      </trkpt>
      <trkpt lat="35.613730" lon="-119.651190">
        <ele>73.441</ele>
        <time>2018-12-28T10:05:57Z</time>
      </trkpt>
      <trkpt lat="35.614170" lon="-119.651500">
        <ele>73.955</ele>
        <time>2018-12-28T10:06:17Z</time>
      </trkpt>
      <trkpt lat="35.614490" lon="-119.651750">
        <ele>74.368</ele>
        <time>2018-12-28T10:06:37Z</time>
      </trkpt>
      <trkpt lat="35.614730" lon="-119.651920">
        <ele>74.675</ele>
        <time>2018-12-28T10:06:57Z</time>
      </trkpt>
      <trkpt lat="35.614950" lon="-119.652090">
        <ele>74.828</ele>
        <time>2018-12-28T10:07:17Z</time>
      </trkpt>
      <trkpt lat="35.615280" lon="-119.652330">
        <ele>75.020</ele>
        <time>2018-12-28T10:07:37Z</time>
      </trkpt>
      <trkpt lat="35.615600" lon="-119.652570">
        <ele>75.308</ele>
        <time>2018-12-28T10:07:57Z</time>
      </trkpt>
      <trkpt lat="35.615930" lon="-119.652820">
        <ele>75.640</ele>
        <time>2018-12-28T10:08:17Z</time>
      </trkpt>
      <trkpt lat="35.616250" lon="-119.653060">
        <ele>75.828</ele>
        <time>2018-12-28T10:08:37Z</time>
      </trkpt>
      <trkpt lat="35.616270" lon="-119.653070">
        <ele>75.843</ele>
        <time>2018-12-28T10:08:57Z</time>
      </trkpt>
      <trkpt lat="35.616600" lon="-119.653310">
        <ele>75.342</ele>
        <time>2018-12-28T10:09:17Z</time>
      </trkpt>
      <trkpt lat="35.616740" lon="-119.653420">
        <ele>75.216</ele>
        <time>2018-12-28T10:09:37Z</time>
      </trkpt>
      <trkpt lat="35.617250" lon="-119.653800">
        <ele>75.029</ele>
        <time>2018-12-28T10:09:57Z</time>
      </trkpt>
      <trkpt lat="35.617590" lon="-119.654050">
        <ele>75.013</ele>
        <time>2018-12-28T10:10:17Z</time>
      </trkpt>
      <trkpt lat="35.617940" lon="-119.654310">
        <ele>75.156</ele>
        <time>2018-12-28T10:10:37Z</time>
      </trkpt>
      <trkpt lat="35.618160" lon="-119.654470">
        <ele>75.175</ele>
        <time>2018-12-28T10:10:57Z</time>
      </trkpt>
      <trkpt lat="35.618500" lon="-119.654730">
        <ele>74.828</ele>
        <time>2018-12-28T10:11:17Z</time>
      </trkpt>
      <trkpt lat="35.618850" lon="-119.654980">
        <ele>74.420</ele>
        <time>2018-12-28T10:11:37Z</time>
      </trkpt>
      <trkpt lat="35.619300" lon="-119.655320">
        <ele>74.308</ele>
        <time>2018-12-28T10:11:57Z</time>
      </trkpt>
      <trkpt lat="35.619880" lon="-119.655750">
        <ele>74.540</ele>
        <time>2018-12-28T10:12:17Z</time>
      </trkpt>
      <trkpt lat="35.620360" lon="-119.656100">
        <ele>75.148</ele>
        <time>2018-12-28T10:12:37Z</time>
      </trkpt>
      <trkpt lat="35.620530" lon="-119.656230">
        <ele>75.063</ele>
        <time>2018-12-28T10:12:57Z</time>
      </trkpt>
      <trkpt lat="35.620870" lon="-119.656480">
        <ele>75.022</ele>
        <time>2018-12-28T10:13:17Z</time>
      </trkpt>
      <trkpt lat="35.621200" lon="-119.656730">
        <ele>75.066</ele>
        <time>2018-12-28T10:13:37Z</time>
      </trkpt>
      <trkpt lat="35.621540" lon="-119.656980">
        <ele>75.129</ele>
        <time>2018-12-28T10:13:57Z</time>
      </trkpt>
      <trkpt lat="35.621980" lon="-119.657310">
        <ele>75.473</ele>
        <time>2018-12-28T10:14:17Z</time>
      </trkpt>
      <trkpt lat="35.622430" lon="-119.657650">
        <ele>75.736</ele>
        <time>2018-12-28T10:14:37Z</time>
      </trkpt>
      <trkpt lat="35.622880" lon="-119.657980">
        <ele>76.587</ele>
        <time>2018-12-28T10:14:57Z</time>
      </trkpt>
      <trkpt lat="35.623340" lon="-119.658320">
        <ele>76.742</ele>
        <time>2018-12-28T10:15:17Z</time>
      </trkpt>
      <trkpt lat="35.623680" lon="-119.658570">
        <ele>76.226</ele>
        <time>2018-12-28T10:15:37Z</time>
      </trkpt>
      <trkpt lat="35.624010" lon="-119.658820">
        <ele>75.308</ele>
        <time>2018-12-28T10:15:57Z</time>
      </trkpt>
      <trkpt lat="35.624470" lon="-119.659160">
        <ele>75.131</ele>
        <time>2018-12-28T10:16:17Z</time>
      </trkpt>
      <trkpt lat="35.624910" lon="-119.659490">
        <ele>74.879</ele>
        <time>2018-12-28T10:16:37Z</time>
      </trkpt>
      <trkpt lat="35.625250" lon="-119.659740">
        <ele>74.544</ele>
        <time>2018-12-28T10:16:57Z</time>
      </trkpt>
      <trkpt lat="35.625700" lon="-119.660070">
        <ele>74.363</ele>
        <time>2018-12-28T10:17:17Z</time>
      </trkpt>
      <trkpt lat="35.626260" lon="-119.660490">
        <ele>74.017</ele>
        <time>2018-12-28T10:17:37Z</time>
      </trkpt>
      <trkpt lat="35.626720" lon="-119.660830">
        <ele>73.890</ele>
        <time>2018-12-28T10:17:57Z</time>
      </trkpt>
      <trkpt lat="35.627050" lon="-119.661070">
        <ele>73.844</ele>
        <time>2018-12-28T10:18:17Z</time>
      </trkpt>
      <trkpt lat="35.627540" lon="-119.661440">
        <ele>74.027</ele>
        <time>2018-12-28T10:18:37Z</time>
      </trkpt>
      <trkpt lat="35.628100" lon="-119.661850">
        <ele>74.195</ele>
        <time>2018-12-28T10:18:57Z</time>
      </trkpt>
      <trkpt lat="35.628530" lon="-119.662170">
        <ele>74.049</ele>
        <time>2018-12-28T10:19:17Z</time>
      </trkpt>
      <trkpt lat="35.629310" lon="-119.662760">
        <ele>73.923</ele>
        <time>2018-12-28T10:19:37Z</time>
      </trkpt>
      <trkpt lat="35.629870" lon="-119.663170">
        <ele>73.808</ele>
        <time>2018-12-28T10:19:57Z</time>
      </trkpt>
      <trkpt lat="35.630440" lon="-119.663590">
        <ele>73.952</ele>
        <time>2018-12-28T10:20:17Z</time>
      </trkpt>
      <trkpt lat="35.631390" lon="-119.664300">
        <ele>73.930</ele>
        <time>2018-12-28T10:20:37Z</time>
      </trkpt>
      <trkpt lat="35.631920" lon="-119.664690">
        <ele>73.655</ele>
        <time>2018-12-28T10:20:57Z</time>
      </trkpt>
      <trkpt lat="35.633470" lon="-119.665850">
        <ele>72.444</ele>
        <time>2018-12-28T10:21:17Z</time>
      </trkpt>
      <trkpt lat="35.633740" lon="-119.666050">
        <ele>72.468</ele>
        <time>2018-12-28T10:21:37Z</time>
      </trkpt>
      <trkpt lat="35.634730" lon="-119.666780">
        <ele>73.921</ele>
        <time>2018-12-28T10:21:57Z</time>
      </trkpt>
      <trkpt lat="35.635610" lon="-119.667430">
        <ele>73.815</ele>
        <time>2018-12-28T10:22:17Z</time>
      </trkpt>
      <trkpt lat="35.636400" lon="-119.668020">
        <ele>73.798</ele>
        <time>2018-12-28T10:22:37Z</time>
      </trkpt>
      <trkpt lat="35.636970" lon="-119.668440">
        <ele>73.993</ele>
        <time>2018-12-28T10:22:57Z</time>
      </trkpt>
      <trkpt lat="35.637650" lon="-119.668950">
        <ele>73.965</ele>
        <time>2018-12-28T10:23:17Z</time>
      </trkpt>
      <trkpt lat="35.638430" lon="-119.669530">
        <ele>73.621</ele>
        <time>2018-12-28T10:23:37Z</time>
      </trkpt>
      <trkpt lat="35.639110" lon="-119.670030">
        <ele>73.808</ele>
        <time>2018-12-28T10:23:57Z</time>
      </trkpt>
      <trkpt lat="35.639790" lon="-119.670540">
        <ele>73.942</ele>
        <time>2018-12-28T10:24:17Z</time>
      </trkpt>
      <trkpt lat="35.640240" lon="-119.670880">
        <ele>73.870</ele>
        <time>2018-12-28T10:24:37Z</time>
      </trkpt>
      <trkpt lat="35.640790" lon="-119.671290">
        <ele>73.775</ele>
        <time>2018-12-28T10:24:57Z</time>
      </trkpt>
      <trkpt lat="35.641370" lon="-119.671720">
        <ele>73.574</ele>
        <time>2018-12-28T10:25:17Z</time>
      </trkpt>
      <trkpt lat="35.642150" lon="-119.672290">
        <ele>73.558</ele>
        <time>2018-12-28T10:25:37Z</time>
      </trkpt>
      <trkpt lat="35.642820" lon="-119.672790">
        <ele>73.511</ele>
        <time>2018-12-28T10:25:57Z</time>
      </trkpt>
      <trkpt lat="35.643490" lon="-119.673290">
        <ele>73.535</ele>
        <time>2018-12-28T10:26:17Z</time>
      </trkpt>
      <trkpt lat="35.644160" lon="-119.673790">
        <ele>73.638</ele>
        <time>2018-12-28T10:26:37Z</time>
      </trkpt>
      <trkpt lat="35.644720" lon="-119.674210">
        <ele>73.638</ele>
        <time>2018-12-28T10:26:57Z</time>
      </trkpt>
      <trkpt lat="35.645190" lon="-119.674560">
        <ele>73.670</ele>
        <time>2018-12-28T10:27:17Z</time>
      </trkpt>
      <trkpt lat="35.646980" lon="-119.675880">
        <ele>73.917</ele>
        <time>2018-12-28T10:27:37Z</time>
      </trkpt>
      <trkpt lat="35.647650" lon="-119.676390">
        <ele>74.008</ele>
        <time>2018-12-28T10:27:57Z</time>
      </trkpt>
      <trkpt lat="35.648100" lon="-119.676720">
        <ele>74.156</ele>
        <time>2018-12-28T10:28:17Z</time>
      </trkpt>
      <trkpt lat="35.648790" lon="-119.677230">
        <ele>74.224</ele>
        <time>2018-12-28T10:28:37Z</time>
      </trkpt>
      <trkpt lat="35.649230" lon="-119.677560">
        <ele>74.259</ele>
        <time>2018-12-28T10:28:57Z</time>
      </trkpt>
      <trkpt lat="35.649680" lon="-119.677890">
        <ele>74.288</ele>
        <time>2018-12-28T10:29:17Z</time>
      </trkpt>
      <trkpt lat="35.650130" lon="-119.678230">
        <ele>74.362</ele>
        <time>2018-12-28T10:29:37Z</time>
      </trkpt>
      <trkpt lat="35.650590" lon="-119.678560">
        <ele>74.355</ele>
        <time>2018-12-28T10:29:57Z</time>
      </trkpt>
      <trkpt lat="35.651030" lon="-119.678900">
        <ele>74.399</ele>
        <time>2018-12-28T10:30:17Z</time>
      </trkpt>
      <trkpt lat="35.651480" lon="-119.679230">
        <ele>74.312</ele>
        <time>2018-12-28T10:30:37Z</time>
      </trkpt>
      <trkpt lat="35.652260" lon="-119.679820">
        <ele>74.326</ele>
        <time>2018-12-28T10:30:57Z</time>
      </trkpt>
      <trkpt lat="35.652830" lon="-119.680240">
        <ele>74.347</ele>
        <time>2018-12-28T10:31:17Z</time>
      </trkpt>
      <trkpt lat="35.653280" lon="-119.680580">
        <ele>74.311</ele>
        <time>2018-12-28T10:31:37Z</time>
      </trkpt>
      <trkpt lat="35.653840" lon="-119.680990">
        <ele>74.408</ele>
        <time>2018-12-28T10:31:57Z</time>
      </trkpt>
      <trkpt lat="35.655100" lon="-119.681930">
        <ele>74.415</ele>
        <time>2018-12-28T10:32:17Z</time>
      </trkpt>
      <trkpt lat="35.655610" lon="-119.682300">
        <ele>74.443</ele>
        <time>2018-12-28T10:32:37Z</time>
      </trkpt>
      <trkpt lat="35.655990" lon="-119.682590">
        <ele>74.378</ele>
        <time>2018-12-28T10:32:57Z</time>
      </trkpt>
      <trkpt lat="35.657300" lon="-119.683560">
        <ele>74.357</ele>
        <time>2018-12-28T10:33:17Z</time>
      </trkpt>
      <trkpt lat="35.657850" lon="-119.683980">
        <ele>74.341</ele>
        <time>2018-12-28T10:33:37Z</time>
      </trkpt>
      <trkpt lat="35.658400" lon="-119.684390">
        <ele>74.364</ele>
        <time>2018-12-28T10:33:57Z</time>
      </trkpt>
      <trkpt lat="35.659140" lon="-119.684930">
        <ele>74.398</ele>
        <time>2018-12-28T10:34:17Z</time>
      </trkpt>
      <trkpt lat="35.659630" lon="-119.685300">
        <ele>74.341</ele>
        <time>2018-12-28T10:34:37Z</time>
      </trkpt>
      <trkpt lat="35.660140" lon="-119.685680">
        <ele>74.468</ele>
        <time>2018-12-28T10:34:57Z</time>
      </trkpt>
      <trkpt lat="35.660930" lon="-119.686260">
        <ele>74.542</ele>
        <time>2018-12-28T10:35:17Z</time>
      </trkpt>
      <trkpt lat="35.661500" lon="-119.686680">
        <ele>74.626</ele>
        <time>2018-12-28T10:35:37Z</time>
      </trkpt>
      <trkpt lat="35.661730" lon="-119.686850">
        <ele>74.608</ele>
        <time>2018-12-28T10:35:57Z</time>
      </trkpt>
      <trkpt lat="35.662070" lon="-119.687110">
        <ele>74.619</ele>
        <time>2018-12-28T10:36:17Z</time>
      </trkpt>
      <trkpt lat="35.662510" lon="-119.687430">
        <ele>74.747</ele>
        <time>2018-12-28T10:36:37Z</time>
      </trkpt>
      <trkpt lat="35.662860" lon="-119.687690">
        <ele>74.752</ele>
        <time>2018-12-28T10:36:57Z</time>
      </trkpt>
      <trkpt lat="35.663300" lon="-119.688020">
        <ele>74.821</ele>
        <time>2018-12-28T10:37:17Z</time>
      </trkpt>
      <trkpt lat="35.663750" lon="-119.688360">
        <ele>74.895</ele>
        <time>2018-12-28T10:37:37Z</time>
      </trkpt>
      <trkpt lat="35.663980" lon="-119.688530">
        <ele>74.868</ele>
        <time>2018-12-28T10:37:57Z</time>
      </trkpt>
      <trkpt lat="35.664310" lon="-119.688780">
        <ele>74.932</ele>
        <time>2018-12-28T10:38:17Z</time>
      </trkpt>
      <trkpt lat="35.664540" lon="-119.688950">
        <ele>74.915</ele>
        <time>2018-12-28T10:38:37Z</time>
      </trkpt>
      <trkpt lat="35.664760" lon="-119.689110">
        <ele>74.962</ele>
        <time>2018-12-28T10:38:57Z</time>
      </trkpt>
      <trkpt lat="35.665110" lon="-119.689370">
        <ele>75.083</ele>
        <time>2018-12-28T10:39:17Z</time>
      </trkpt>
      <trkpt lat="35.665450" lon="-119.689620">
        <ele>75.011</ele>
        <time>2018-12-28T10:39:37Z</time>
      </trkpt>
      <trkpt lat="35.665780" lon="-119.689860">
        <ele>75.108</ele>
        <time>2018-12-28T10:39:57Z</time>
      </trkpt>
      <trkpt lat="35.666010" lon="-119.690030">
        <ele>75.199</ele>
        <time>2018-12-28T10:40:17Z</time>
      </trkpt>
      <trkpt lat="35.666230" lon="-119.690200">
        <ele>75.237</ele>
        <time>2018-12-28T10:40:37Z</time>
      </trkpt>
      <trkpt lat="35.666420" lon="-119.690330">
        <ele>75.262</ele>
        <time>2018-12-28T10:40:57Z</time>
      </trkpt>
      <trkpt lat="35.666540" lon="-119.690410">
        <ele>75.371</ele>
        <time>2018-12-28T10:41:17Z</time>
      </trkpt>
      <trkpt lat="35.667250" lon="-119.690950">
        <ele>75.455</ele>
        <time>2018-12-28T10:41:37Z</time>
      </trkpt>
      <trkpt lat="35.667870" lon="-119.691420">
        <ele>75.438</ele>
        <time>2018-12-28T10:41:57Z</time>
      </trkpt>
      <trkpt lat="35.668720" lon="-119.692050">
        <ele>75.562</ele>
        <time>2018-12-28T10:42:17Z</time>
      </trkpt>
      <trkpt lat="35.669490" lon="-119.692630">
        <ele>75.595</ele>
        <time>2018-12-28T10:42:37Z</time>
      </trkpt>
      <trkpt lat="35.670180" lon="-119.693140">
        <ele>75.339</ele>
        <time>2018-12-28T10:42:57Z</time>
      </trkpt>
      <trkpt lat="35.670780" lon="-119.693590">
        <ele>75.101</ele>
        <time>2018-12-28T10:43:17Z</time>
      </trkpt>
      <trkpt lat="35.671630" lon="-119.694210">
        <ele>75.021</ele>
        <time>2018-12-28T10:43:37Z</time>
      </trkpt>
      <trkpt lat="35.672260" lon="-119.694680">
        <ele>74.908</ele>
        <time>2018-12-28T10:43:57Z</time>
      </trkpt>
      <trkpt lat="35.672940" lon="-119.695190">
        <ele>74.996</ele>
        <time>2018-12-28T10:44:17Z</time>
      </trkpt>
      <trkpt lat="35.673620" lon="-119.695700">
        <ele>74.924</ele>
        <time>2018-12-28T10:44:37Z</time>
      </trkpt>
      <trkpt lat="35.674000" lon="-119.695980">
        <ele>74.929</ele>
        <time>2018-12-28T10:44:57Z</time>
      </trkpt>
      <trkpt lat="35.674550" lon="-119.696390">
        <ele>74.958</ele>
        <time>2018-12-28T10:45:17Z</time>
      </trkpt>
      <trkpt lat="35.675000" lon="-119.696730">
        <ele>74.962</ele>
        <time>2018-12-28T10:45:37Z</time>
      </trkpt>
      <trkpt lat="35.675750" lon="-119.697280">
        <ele>74.835</ele>
        <time>2018-12-28T10:45:57Z</time>
      </trkpt>
      <trkpt lat="35.676690" lon="-119.697980">
        <ele>74.749</ele>
        <time>2018-12-28T10:46:17Z</time>
      </trkpt>
      <trkpt lat="35.677380" lon="-119.698490">
        <ele>74.612</ele>
        <time>2018-12-28T10:46:37Z</time>
      </trkpt>
      <trkpt lat="35.678030" lon="-119.698980">
        <ele>74.592</ele>
        <time>2018-12-28T10:46:57Z</time>
      </trkpt>
      <trkpt lat="35.678650" lon="-119.699440">
        <ele>74.473</ele>
        <time>2018-12-28T10:47:17Z</time>
      </trkpt>
      <trkpt lat="35.679200" lon="-119.699850">
        <ele>74.320</ele>
        <time>2018-12-28T10:47:37Z</time>
      </trkpt>
      <trkpt lat="35.679620" lon="-119.700160">
        <ele>74.208</ele>
        <time>2018-12-28T10:47:57Z</time>
      </trkpt>
      <trkpt lat="35.680290" lon="-119.700670">
        <ele>74.132</ele>
        <time>2018-12-28T10:48:17Z</time>
      </trkpt>
      <trkpt lat="35.680750" lon="-119.701000">
        <ele>73.920</ele>
        <time>2018-12-28T10:48:37Z</time>
      </trkpt>
      <trkpt lat="35.681200" lon="-119.701340">
        <ele>73.715</ele>
        <time>2018-12-28T10:48:57Z</time>
      </trkpt>
      <trkpt lat="35.681650" lon="-119.701670">
        <ele>73.664</ele>
        <time>2018-12-28T10:49:17Z</time>
      </trkpt>
      <trkpt lat="35.682100" lon="-119.702010">
        <ele>73.468</ele>
        <time>2018-12-28T10:49:37Z</time>
      </trkpt>
      <trkpt lat="35.682440" lon="-119.702270">
        <ele>73.331</ele>
        <time>2018-12-28T10:49:57Z</time>
      </trkpt>
      <trkpt lat="35.682780" lon="-119.702520">
        <ele>73.175</ele>
        <time>2018-12-28T10:50:17Z</time>
      </trkpt>
      <trkpt lat="35.683220" lon="-119.702840">
        <ele>72.928</ele>
        <time>2018-12-28T10:50:37Z</time>
      </trkpt>
      <trkpt lat="35.683670" lon="-119.703180">
        <ele>72.752</ele>
        <time>2018-12-28T10:50:57Z</time>
      </trkpt>
      <trkpt lat="35.684130" lon="-119.703520">
        <ele>72.653</ele>
        <time>2018-12-28T10:51:17Z</time>
      </trkpt>
      <trkpt lat="35.684570" lon="-119.703850">
        <ele>72.508</ele>
        <time>2018-12-28T10:51:37Z</time>
      </trkpt>
      <trkpt lat="35.685030" lon="-119.704190">
        <ele>72.408</ele>
        <time>2018-12-28T10:51:57Z</time>
      </trkpt>
      <trkpt lat="35.685290" lon="-119.704380">
        <ele>72.378</ele>
        <time>2018-12-28T10:52:17Z</time>
      </trkpt>
      <trkpt lat="35.685470" lon="-119.704520">
        <ele>72.386</ele>
        <time>2018-12-28T10:52:37Z</time>
      </trkpt>
      <trkpt lat="35.685810" lon="-119.704780">
        <ele>72.271</ele>
        <time>2018-12-28T10:52:57Z</time>
      </trkpt>
      <trkpt lat="35.686270" lon="-119.705110">
        <ele>72.210</ele>
        <time>2018-12-28T10:53:17Z</time>
      </trkpt>
      <trkpt lat="35.686600" lon="-119.705370">
        <ele>72.144</ele>
        <time>2018-12-28T10:53:37Z</time>
      </trkpt>
      <trkpt lat="35.687050" lon="-119.705700">
        <ele>72.017</ele>
        <time>2018-12-28T10:53:57Z</time>
      </trkpt>
      <trkpt lat="35.687390" lon="-119.705950">
        <ele>71.951</ele>
        <time>2018-12-28T10:54:17Z</time>
      </trkpt>
      <trkpt lat="35.687620" lon="-119.706120">
        <ele>71.854</ele>
        <time>2018-12-28T10:54:37Z</time>
      </trkpt>
      <trkpt lat="35.687840" lon="-119.706290">
        <ele>71.794</ele>
        <time>2018-12-28T10:54:57Z</time>
      </trkpt>
      <trkpt lat="35.688180" lon="-119.706540">
        <ele>71.657</ele>
        <time>2018-12-28T10:55:17Z</time>
      </trkpt>
      <trkpt lat="35.688510" lon="-119.706780">
        <ele>71.522</ele>
        <time>2018-12-28T10:55:37Z</time>
      </trkpt>
      <trkpt lat="35.688850" lon="-119.707030">
        <ele>71.408</ele>
        <time>2018-12-28T10:55:57Z</time>
      </trkpt>
      <trkpt lat="35.689200" lon="-119.707290">
        <ele>71.342</ele>
        <time>2018-12-28T10:56:17Z</time>
      </trkpt>
      <trkpt lat="35.689530" lon="-119.707540">
        <ele>71.210</ele>
        <time>2018-12-28T10:56:37Z</time>
      </trkpt>
      <trkpt lat="35.689860" lon="-119.707790">
        <ele>71.115</ele>
        <time>2018-12-28T10:56:57Z</time>
      </trkpt>
      <trkpt lat="35.690210" lon="-119.708050">
        <ele>71.014</ele>
        <time>2018-12-28T10:57:17Z</time>
      </trkpt>
      <trkpt lat="35.690540" lon="-119.708290">
        <ele>70.958</ele>
        <time>2018-12-28T10:57:37Z</time>
      </trkpt>
      <trkpt lat="35.690880" lon="-119.708540">
        <ele>70.991</ele>
        <time>2018-12-28T10:57:57Z</time>
      </trkpt>
      <trkpt lat="35.691110" lon="-119.708720">
        <ele>70.815</ele>
        <time>2018-12-28T10:58:17Z</time>
      </trkpt>
      <trkpt lat="35.691770" lon="-119.709210">
        <ele>70.758</ele>
        <time>2018-12-28T10:58:37Z</time>
      </trkpt>
      <trkpt lat="35.692330" lon="-119.709630">
        <ele>70.622</ele>
        <time>2018-12-28T10:58:57Z</time>
      </trkpt>
      <trkpt lat="35.719100" lon="-119.729560">
        <ele>68.962</ele>
        <time>2018-12-28T10:59:17Z</time>
      </trkpt>
      <trkpt lat="35.719770" lon="-119.730060">
        <ele>68.908</ele>
        <time>2018-12-28T10:59:37Z</time>
      </trkpt>
      <trkpt lat="35.720220" lon="-119.730400">
        <ele>68.908</ele>
        <time>2018-12-28T10:59:57Z</time>
      </trkpt>
      <trkpt lat="35.720900" lon="-119.730910">
        <ele>68.985</ele>
        <time>2018-12-28T11:00:17Z</time>
      </trkpt>
      <trkpt lat="35.721470" lon="-119.731330">
        <ele>68.963</ele>
        <time>2018-12-28T11:00:37Z</time>
      </trkpt>
      <trkpt lat="35.721810" lon="-119.731580">
        <ele>68.868</ele>
        <time>2018-12-28T11:00:57Z</time>
      </trkpt>
      <trkpt lat="35.722370" lon="-119.732000">
        <ele>68.857</ele>
        <time>2018-12-28T11:01:17Z</time>
      </trkpt>
      <trkpt lat="35.722710" lon="-119.732250">
        <ele>68.821</ele>
        <time>2018-12-28T11:01:37Z</time>
      </trkpt>
      <trkpt lat="35.723160" lon="-119.732590">
        <ele>68.874</ele>
        <time>2018-12-28T11:01:57Z</time>
      </trkpt>
      <trkpt lat="35.723840" lon="-119.733100">
        <ele>68.718</ele>
        <time>2018-12-28T11:02:17Z</time>
      </trkpt>
      <trkpt lat="35.724400" lon="-119.733520">
        <ele>68.761</ele>
        <time>2018-12-28T11:02:37Z</time>
      </trkpt>
      <trkpt lat="35.724960" lon="-119.733940">
        <ele>68.694</ele>
        <time>2018-12-28T11:02:57Z</time>
      </trkpt>
      <trkpt lat="35.725410" lon="-119.734280">
        <ele>68.557</ele>
        <time>2018-12-28T11:03:17Z</time>
      </trkpt>
      <trkpt lat="35.725760" lon="-119.734540">
        <ele>68.522</ele>
        <time>2018-12-28T11:03:37Z</time>
      </trkpt>
      <trkpt lat="35.726100" lon="-119.734790">
        <ele>68.408</ele>
        <time>2018-12-28T11:03:57Z</time>
      </trkpt>
      <trkpt lat="35.726770" lon="-119.735290">
        <ele>68.282</ele>
        <time>2018-12-28T11:04:17Z</time>
      </trkpt>
      <trkpt lat="35.727900" lon="-119.736140">
        <ele>68.050</ele>
        <time>2018-12-28T11:04:37Z</time>
      </trkpt>
      <trkpt lat="35.728100" lon="-119.736280">
        <ele>68.055</ele>
        <time>2018-12-28T11:04:57Z</time>
      </trkpt>
      <trkpt lat="35.728270" lon="-119.736410">
        <ele>68.074</ele>
        <time>2018-12-28T11:05:17Z</time>
      </trkpt>
      <trkpt lat="35.729260" lon="-119.737150">
        <ele>67.928</ele>
        <time>2018-12-28T11:05:37Z</time>
      </trkpt>
      <trkpt lat="35.730150" lon="-119.737800">
        <ele>67.951</ele>
        <time>2018-12-28T11:05:57Z</time>
      </trkpt>
      <trkpt lat="35.731190" lon="-119.738580">
        <ele>67.855</ele>
        <time>2018-12-28T11:06:17Z</time>
      </trkpt>
      <trkpt lat="35.731440" lon="-119.738770">
        <ele>67.898</ele>
        <time>2018-12-28T11:06:37Z</time>
      </trkpt>
      <trkpt lat="35.731800" lon="-119.739040">
        <ele>67.833</ele>
        <time>2018-12-28T11:06:57Z</time>
      </trkpt>
      <trkpt lat="35.731920" lon="-119.739120">
        <ele>67.823</ele>
        <time>2018-12-28T11:07:17Z</time>
      </trkpt>
      <trkpt lat="35.732560" lon="-119.739600">
        <ele>67.815</ele>
        <time>2018-12-28T11:07:37Z</time>
      </trkpt>
      <trkpt lat="35.733290" lon="-119.740140">
        <ele>67.808</ele>
        <time>2018-12-28T11:07:57Z</time>
      </trkpt>
      <trkpt lat="35.733810" lon="-119.740540">
        <ele>67.866</ele>
        <time>2018-12-28T11:08:17Z</time>
      </trkpt>
      <trkpt lat="35.734130" lon="-119.740780">
        <ele>67.834</ele>
        <time>2018-12-28T11:08:37Z</time>
      </trkpt>
      <trkpt lat="35.734550" lon="-119.741080">
        <ele>67.849</ele>
        <time>2018-12-28T11:08:57Z</time>
      </trkpt>
      <trkpt lat="35.735120" lon="-119.741500">
        <ele>67.828</ele>
        <time>2018-12-28T11:09:17Z</time>
      </trkpt>
      <trkpt lat="35.736880" lon="-119.742820">
        <ele>67.862</ele>
        <time>2018-12-28T11:09:37Z</time>
      </trkpt>
      <trkpt lat="35.737740" lon="-119.743460">
        <ele>67.835</ele>
        <time>2018-12-28T11:09:57Z</time>
      </trkpt>
      <trkpt lat="35.738610" lon="-119.744110">
        <ele>67.989</ele>
        <time>2018-12-28T11:10:17Z</time>
      </trkpt>
      <trkpt lat="35.738830" lon="-119.744280">
        <ele>67.942</ele>
        <time>2018-12-28T11:10:37Z</time>
      </trkpt>
      <trkpt lat="35.756630" lon="-119.757550">
        <ele>69.744</ele>
        <time>2018-12-28T11:10:57Z</time>
      </trkpt>
      <trkpt lat="35.760930" lon="-119.760760">
        <ele>70.005</ele>
        <time>2018-12-28T11:11:17Z</time>
      </trkpt>
      <trkpt lat="35.762360" lon="-119.761820">
        <ele>70.115</ele>
        <time>2018-12-28T11:11:37Z</time>
      </trkpt>
      <trkpt lat="35.763370" lon="-119.762570">
        <ele>70.108</ele>
        <time>2018-12-28T11:11:57Z</time>
      </trkpt>
      <trkpt lat="35.767450" lon="-119.765620">
        <ele>71.377</ele>
        <time>2018-12-28T11:12:17Z</time>
      </trkpt>
      <trkpt lat="35.778840" lon="-119.774120">
        <ele>71.365</ele>
        <time>2018-12-28T11:12:37Z</time>
      </trkpt>
      <trkpt lat="35.780990" lon="-119.775740">
        <ele>71.580</ele>
        <time>2018-12-28T11:12:57Z</time>
      </trkpt>
      <trkpt lat="35.783270" lon="-119.777430">
        <ele>71.459</ele>
        <time>2018-12-28T11:13:17Z</time>
      </trkpt>
      <trkpt lat="35.785320" lon="-119.778960">
        <ele>71.033</ele>
        <time>2018-12-28T11:13:37Z</time>
      </trkpt>
      <trkpt lat="35.787140" lon="-119.780330">
        <ele>70.866</ele>
        <time>2018-12-28T11:13:57Z</time>
      </trkpt>
      <trkpt lat="35.788410" lon="-119.781270">
        <ele>70.740</ele>
        <time>2018-12-28T11:14:17Z</time>
      </trkpt>
      <trkpt lat="35.789500" lon="-119.782080">
        <ele>70.743</ele>
        <time>2018-12-28T11:14:37Z</time>
      </trkpt>
      <trkpt lat="35.789630" lon="-119.782180">
        <ele>70.788</ele>
        <time>2018-12-28T11:14:57Z</time>
      </trkpt>
      <trkpt lat="35.789650" lon="-119.782190">
        <ele>70.724</ele>
        <time>2018-12-28T11:15:17Z</time>
      </trkpt>
      <trkpt lat="35.789980" lon="-119.782430">
        <ele>70.826</ele>
        <time>2018-12-28T11:15:37Z</time>
      </trkpt>
      <trkpt lat="35.790560" lon="-119.782860">
        <ele>70.908</ele>
        <time>2018-12-28T11:15:57Z</time>
      </trkpt>
      <trkpt lat="35.792410" lon="-119.784250">
        <ele>71.421</ele>
        <time>2018-12-28T11:16:17Z</time>
      </trkpt>
      <trkpt lat="35.793790" lon="-119.785280">
        <ele>71.589</ele>
        <time>2018-12-28T11:16:37Z</time>
      </trkpt>
      <trkpt lat="35.797110" lon="-119.787760">
        <ele>71.084</ele>
        <time>2018-12-28T11:16:57Z</time>
      </trkpt>
      <trkpt lat="35.803080" lon="-119.792230">
        <ele>70.153</ele>
        <time>2018-12-28T11:17:17Z</time>
      </trkpt>
      <trkpt lat="35.805630" lon="-119.794130">
        <ele>69.857</ele>
        <time>2018-12-28T11:17:37Z</time>
      </trkpt>
      <trkpt lat="35.818540" lon="-119.803770">
        <ele>69.250</ele>
        <time>2018-12-28T11:17:57Z</time>
      </trkpt>
      <trkpt lat="35.819210" lon="-119.804280">
        <ele>69.274</ele>
        <time>2018-12-28T11:18:17Z</time>
      </trkpt>
      <trkpt lat="35.819730" lon="-119.804670">
        <ele>69.367</ele>
        <time>2018-12-28T11:18:37Z</time>
      </trkpt>
      <trkpt lat="35.820720" lon="-119.805400">
        <ele>69.453</ele>
        <time>2018-12-28T11:18:57Z</time>
      </trkpt>
      <trkpt lat="35.821290" lon="-119.805830">
        <ele>69.304</ele>
        <time>2018-12-28T11:19:17Z</time>
      </trkpt>
      <trkpt lat="35.822390" lon="-119.806650">
        <ele>69.214</ele>
        <time>2018-12-28T11:19:37Z</time>
      </trkpt>
      <trkpt lat="35.823440" lon="-119.807430">
        <ele>69.008</ele>
        <time>2018-12-28T11:19:57Z</time>
      </trkpt>
      <trkpt lat="35.824560" lon="-119.808280">
        <ele>68.958</ele>
        <time>2018-12-28T11:20:17Z</time>
      </trkpt>
      <trkpt lat="35.825460" lon="-119.808950">
        <ele>68.936</ele>
        <time>2018-12-28T11:20:37Z</time>
      </trkpt>
      <trkpt lat="35.826220" lon="-119.809520">
        <ele>68.971</ele>
        <time>2018-12-28T11:20:57Z</time>
      </trkpt>
      <trkpt lat="35.827480" lon="-119.810460">
        <ele>68.830</ele>
        <time>2018-12-28T11:21:17Z</time>
      </trkpt>
      <trkpt lat="35.828320" lon="-119.811090">
        <ele>68.844</ele>
        <time>2018-12-28T11:21:37Z</time>
      </trkpt>
      <trkpt lat="35.829140" lon="-119.811710">
        <ele>68.887</ele>
        <time>2018-12-28T11:21:57Z</time>
      </trkpt>
      <trkpt lat="35.831170" lon="-119.813220">
        <ele>68.931</ele>
        <time>2018-12-28T11:22:17Z</time>
      </trkpt>
      <trkpt lat="35.831320" lon="-119.813320">
        <ele>68.964</ele>
        <time>2018-12-28T11:22:37Z</time>
      </trkpt>
      <trkpt lat="35.831570" lon="-119.813520">
        <ele>68.948</ele>
        <time>2018-12-28T11:22:57Z</time>
      </trkpt>
      <trkpt lat="35.831770" lon="-119.813670">
        <ele>68.961</ele>
        <time>2018-12-28T11:23:17Z</time>
      </trkpt>
      <trkpt lat="35.832510" lon="-119.814230">
        <ele>69.017</ele>
        <time>2018-12-28T11:23:37Z</time>
      </trkpt>
      <trkpt lat="35.833470" lon="-119.814970">
        <ele>69.108</ele>
        <time>2018-12-28T11:23:57Z</time>
      </trkpt>
      <trkpt lat="35.833590" lon="-119.815060">
        <ele>69.157</ele>
        <time>2018-12-28T11:24:17Z</time>
      </trkpt>
      <trkpt lat="35.834890" lon="-119.816100">
        <ele>69.255</ele>
        <time>2018-12-28T11:24:37Z</time>
      </trkpt>
      <trkpt lat="35.835190" lon="-119.816340">
        <ele>69.230</ele>
        <time>2018-12-28T11:24:57Z</time>
      </trkpt>
      <trkpt lat="35.836910" lon="-119.817750">
        <ele>69.349</ele>
        <time>2018-12-28T11:25:17Z</time>
      </trkpt>
      <trkpt lat="35.837460" lon="-119.818190">
        <ele>69.343</ele>
        <time>2018-12-28T11:25:37Z</time>
      </trkpt>
      <trkpt lat="35.838490" lon="-119.819030">
        <ele>69.526</ele>
        <time>2018-12-28T11:25:57Z</time>
      </trkpt>
      <trkpt lat="35.840350" lon="-119.820540">
        <ele>69.930</ele>
        <time>2018-12-28T11:26:17Z</time>
      </trkpt>
      <trkpt lat="35.844120" lon="-119.823610">
        <ele>70.933</ele>
        <time>2018-12-28T11:26:37Z</time>
      </trkpt>
      <trkpt lat="35.844480" lon="-119.823900">
        <ele>71.038</ele>
        <time>2018-12-28T11:26:57Z</time>
      </trkpt>
      <trkpt lat="35.844490" lon="-119.823910">
        <ele>71.070</ele>
        <time>2018-12-28T11:27:17Z</time>
      </trkpt>
      <trkpt lat="35.845230" lon="-119.824510">
        <ele>71.317</ele>
        <time>2018-12-28T11:27:37Z</time>
      </trkpt>
      <trkpt lat="35.846490" lon="-119.825520">
        <ele>71.808</ele>
        <time>2018-12-28T11:27:57Z</time>
      </trkpt>
      <trkpt lat="35.849360" lon="-119.827870">
        <ele>72.996</ele>
        <time>2018-12-28T11:28:17Z</time>
      </trkpt>
      <trkpt lat="35.850090" lon="-119.828480">
        <ele>73.124</ele>
        <time>2018-12-28T11:28:37Z</time>
      </trkpt>
      <trkpt lat="35.850890" lon="-119.829160">
        <ele>73.379</ele>
        <time>2018-12-28T11:28:57Z</time>
      </trkpt>
      <trkpt lat="35.851620" lon="-119.829810">
        <ele>73.658</ele>
        <time>2018-12-28T11:29:17Z</time>
      </trkpt>
      <trkpt lat="35.851870" lon="-119.830030">
        <ele>73.732</ele>
        <time>2018-12-28T11:29:37Z</time>
      </trkpt>
      <trkpt lat="35.853380" lon="-119.831450">
        <ele>74.265</ele>
        <time>2018-12-28T11:29:57Z</time>
      </trkpt>
      <trkpt lat="35.855090" lon="-119.833060">
        <ele>74.829</ele>
        <time>2018-12-28T11:30:17Z</time>
      </trkpt>
      <trkpt lat="35.855300" lon="-119.833260">
        <ele>74.972</ele>
        <time>2018-12-28T11:30:37Z</time>
      </trkpt>
      <trkpt lat="35.855520" lon="-119.833460">
        <ele>75.065</ele>
        <time>2018-12-28T11:30:57Z</time>
      </trkpt>
      <trkpt lat="35.855890" lon="-119.833820">
        <ele>75.168</ele>
        <time>2018-12-28T11:31:17Z</time>
      </trkpt>
      <trkpt lat="35.857790" lon="-119.835620">
        <ele>75.714</ele>
        <time>2018-12-28T11:31:37Z</time>
      </trkpt>
      <trkpt lat="35.859330" lon="-119.837090">
        <ele>75.908</ele>
        <time>2018-12-28T11:31:57Z</time>
      </trkpt>
      <trkpt lat="35.862320" lon="-119.839910">
        <ele>76.329</ele>
        <time>2018-12-28T11:32:17Z</time>
      </trkpt>
      <trkpt lat="35.863800" lon="-119.841310">
        <ele>76.577</ele>
        <time>2018-12-28T11:32:37Z</time>
      </trkpt>
      <trkpt lat="35.864690" lon="-119.842150">
        <ele>76.672</ele>
        <time>2018-12-28T11:32:57Z</time>
      </trkpt>
      <trkpt lat="35.865300" lon="-119.842740">
        <ele>76.731</ele>
        <time>2018-12-28T11:33:17Z</time>
      </trkpt>
      <trkpt lat="35.867540" lon="-119.844850">
        <ele>77.495</ele>
        <time>2018-12-28T11:33:37Z</time>
      </trkpt>
      <trkpt lat="35.867680" lon="-119.844980">
        <ele>77.438</ele>
        <time>2018-12-28T11:33:57Z</time>
      </trkpt>
      <trkpt lat="35.868290" lon="-119.845570">
        <ele>77.552</ele>
        <time>2018-12-28T11:34:17Z</time>
      </trkpt>
      <trkpt lat="35.869610" lon="-119.846820">
        <ele>77.685</ele>
        <time>2018-12-28T11:34:37Z</time>
      </trkpt>
      <trkpt lat="35.870210" lon="-119.847380">
        <ele>77.738</ele>
        <time>2018-12-28T11:34:57Z</time>
      </trkpt>
      <trkpt lat="35.871580" lon="-119.848680">
        <ele>77.970</ele>
        <time>2018-12-28T11:35:17Z</time>
      </trkpt>
      <trkpt lat="35.871990" lon="-119.849070">
        <ele>77.917</ele>
        <time>2018-12-28T11:35:37Z</time>
      </trkpt>
      <trkpt lat="35.874120" lon="-119.851090">
        <ele>78.208</ele>
        <time>2018-12-28T11:35:57Z</time>
      </trkpt>
      <trkpt lat="35.875270" lon="-119.852170">
        <ele>78.446</ele>
        <time>2018-12-28T11:36:17Z</time>
      </trkpt>
      <trkpt lat="35.875380" lon="-119.852270">
        <ele>78.444</ele>
        <time>2018-12-28T11:36:37Z</time>
      </trkpt>
      <trkpt lat="35.875380" lon="-119.852280">
        <ele>78.469</ele>
        <time>2018-12-28T11:36:57Z</time>
      </trkpt>
      <trkpt lat="35.876370" lon="-119.853210">
        <ele>78.668</ele>
        <time>2018-12-28T11:37:17Z</time>
      </trkpt>
      <trkpt lat="35.880700" lon="-119.857300">
        <ele>78.582</ele>
        <time>2018-12-28T11:37:37Z</time>
      </trkpt>
      <trkpt lat="35.881440" lon="-119.858000">
        <ele>78.785</ele>
        <time>2018-12-28T11:37:57Z</time>
      </trkpt>
      <trkpt lat="35.884180" lon="-119.860610">
        <ele>78.949</ele>
        <time>2018-12-28T11:38:17Z</time>
      </trkpt>
      <trkpt lat="35.885070" lon="-119.861450">
        <ele>78.972</ele>
        <time>2018-12-28T11:38:37Z</time>
      </trkpt>
      <trkpt lat="35.886360" lon="-119.862680">
        <ele>79.092</ele>
        <time>2018-12-28T11:38:57Z</time>
      </trkpt>
      <trkpt lat="35.886900" lon="-119.863180">
        <ele>79.073</ele>
        <time>2018-12-28T11:39:17Z</time>
      </trkpt>
      <trkpt lat="35.887740" lon="-119.863980">
        <ele>79.220</ele>
        <time>2018-12-28T11:39:37Z</time>
      </trkpt>
      <trkpt lat="35.888560" lon="-119.864780">
        <ele>79.608</ele>
        <time>2018-12-28T11:39:57Z</time>
      </trkpt>
      <trkpt lat="35.889440" lon="-119.865650">
        <ele>79.932</ele>
        <time>2018-12-28T11:40:17Z</time>
      </trkpt>
      <trkpt lat="35.890750" lon="-119.867000">
        <ele>79.220</ele>
        <time>2018-12-28T11:40:37Z</time>
      </trkpt>
      <trkpt lat="35.891640" lon="-119.867910">
        <ele>79.385</ele>
        <time>2018-12-28T11:40:57Z</time>
      </trkpt>
      <trkpt lat="35.892930" lon="-119.869220">
        <ele>79.344</ele>
        <time>2018-12-28T11:41:17Z</time>
      </trkpt>
      <trkpt lat="35.896240" lon="-119.872600">
        <ele>77.418</ele>
        <time>2018-12-28T11:41:37Z</time>
      </trkpt>
      <trkpt lat="35.897520" lon="-119.873920">
        <ele>77.131</ele>
        <time>2018-12-28T11:41:57Z</time>
      </trkpt>
      <trkpt lat="35.898010" lon="-119.874420">
        <ele>77.075</ele>
        <time>2018-12-28T11:42:17Z</time>
      </trkpt>
      <trkpt lat="35.900830" lon="-119.877310">
        <ele>77.388</ele>
        <time>2018-12-28T11:42:37Z</time>
      </trkpt>
      <trkpt lat="35.901690" lon="-119.878190">
        <ele>77.219</ele>
        <time>2018-12-28T11:42:57Z</time>
      </trkpt>
      <trkpt lat="35.902570" lon="-119.879080">
        <ele>76.909</ele>
        <time>2018-12-28T11:43:17Z</time>
      </trkpt>
      <trkpt lat="35.903440" lon="-119.879990">
        <ele>76.619</ele>
        <time>2018-12-28T11:43:37Z</time>
      </trkpt>
      <trkpt lat="35.903730" lon="-119.880280">
        <ele>76.508</ele>
        <time>2018-12-28T11:43:57Z</time>
      </trkpt>
      <trkpt lat="35.904700" lon="-119.881270">
        <ele>76.314</ele>
        <time>2018-12-28T11:44:17Z</time>
      </trkpt>
      <trkpt lat="35.906390" lon="-119.882990">
        <ele>76.052</ele>
        <time>2018-12-28T11:44:37Z</time>
      </trkpt>
      <trkpt lat="35.907370" lon="-119.883980">
        <ele>75.837</ele>
        <time>2018-12-28T11:44:57Z</time>
      </trkpt>
      <trkpt lat="35.908370" lon="-119.885010">
        <ele>75.526</ele>
        <time>2018-12-28T11:45:17Z</time>
      </trkpt>
      <trkpt lat="35.908950" lon="-119.885610">
        <ele>75.460</ele>
        <time>2018-12-28T11:45:37Z</time>
      </trkpt>
      <trkpt lat="35.909140" lon="-119.885800">
        <ele>75.313</ele>
        <time>2018-12-28T11:45:57Z</time>
      </trkpt>
      <trkpt lat="35.932030" lon="-119.909230">
        <ele>78.087</ele>
        <time>2018-12-28T11:46:17Z</time>
      </trkpt>
      <trkpt lat="35.934220" lon="-119.911470">
        <ele>81.260</ele>
        <time>2018-12-28T11:46:37Z</time>
      </trkpt>
      <trkpt lat="35.934700" lon="-119.911960">
        <ele>81.739</ele>
        <time>2018-12-28T11:46:57Z</time>
      </trkpt>
      <trkpt lat="35.935970" lon="-119.913260">
        <ele>81.301</ele>
        <time>2018-12-28T11:47:17Z</time>
      </trkpt>
      <trkpt lat="35.936210" lon="-119.913510">
        <ele>81.321</ele>
        <time>2018-12-28T11:47:37Z</time>
      </trkpt>
      <trkpt lat="35.936760" lon="-119.914070">
        <ele>81.308</ele>
        <time>2018-12-28T11:47:57Z</time>
      </trkpt>
      <trkpt lat="35.941850" lon="-119.919280">
        <ele>82.596</ele>
        <time>2018-12-28T11:48:17Z</time>
      </trkpt>
      <trkpt lat="35.944670" lon="-119.922160">
        <ele>81.354</ele>
        <time>2018-12-28T11:48:37Z</time>
      </trkpt>
      <trkpt lat="35.947100" lon="-119.924650">
        <ele>80.889</ele>
        <time>2018-12-28T11:48:57Z</time>
      </trkpt>
      <trkpt lat="35.948210" lon="-119.925780">
        <ele>82.128</ele>
        <time>2018-12-28T11:49:17Z</time>
      </trkpt>
      <trkpt lat="35.951820" lon="-119.929490">
        <ele>82.252</ele>
        <time>2018-12-28T11:49:37Z</time>
      </trkpt>
      <trkpt lat="35.954140" lon="-119.931870">
        <ele>84.115</ele>
        <time>2018-12-28T11:49:57Z</time>
      </trkpt>
      <trkpt lat="35.955480" lon="-119.933240">
        <ele>84.499</ele>
        <time>2018-12-28T11:50:17Z</time>
      </trkpt>
      <trkpt lat="35.959120" lon="-119.936970">
        <ele>90.762</ele>
        <time>2018-12-28T11:50:37Z</time>
      </trkpt>
      <trkpt lat="35.962410" lon="-119.940330">
        <ele>92.895</ele>
        <time>2018-12-28T11:50:57Z</time>
      </trkpt>
      <trkpt lat="35.963280" lon="-119.941220">
        <ele>95.249</ele>
        <time>2018-12-28T11:51:17Z</time>
      </trkpt>
      <trkpt lat="35.964150" lon="-119.942120">
        <ele>98.623</ele>
        <time>2018-12-28T11:51:37Z</time>
      </trkpt>
      <trkpt lat="35.966010" lon="-119.944020">
        <ele>99.308</ele>
        <time>2018-12-28T11:51:57Z</time>
      </trkpt>
      <trkpt lat="35.968460" lon="-119.946530">
        <ele>110.352</ele>
        <time>2018-12-28T11:52:17Z</time>
      </trkpt>
      <trkpt lat="35.971350" lon="-119.949490">
        <ele>117.230</ele>
        <time>2018-12-28T11:52:37Z</time>
      </trkpt>
      <trkpt lat="35.972540" lon="-119.950730">
        <ele>103.235</ele>
        <time>2018-12-28T11:52:57Z</time>
      </trkpt>
      <trkpt lat="35.973500" lon="-119.951690">
        <ele>100.434</ele>
        <time>2018-12-28T11:53:17Z</time>
      </trkpt>
      <trkpt lat="35.974940" lon="-119.953160">
        <ele>123.058</ele>
        <time>2018-12-28T11:53:37Z</time>
      </trkpt>
      <trkpt lat="35.975380" lon="-119.953600">
        <ele>125.181</ele>
        <time>2018-12-28T11:53:57Z</time>
      </trkpt>
      <trkpt lat="35.976070" lon="-119.954310">
        <ele>123.685</ele>
        <time>2018-12-28T11:54:17Z</time>
      </trkpt>
      <trkpt lat="35.976460" lon="-119.954720">
        <ele>117.138</ele>
        <time>2018-12-28T11:54:37Z</time>
      </trkpt>
      <trkpt lat="35.977100" lon="-119.955390">
        <ele>108.383</ele>
        <time>2018-12-28T11:54:57Z</time>
      </trkpt>
      <trkpt lat="35.977540" lon="-119.955860">
        <ele>103.125</ele>
        <time>2018-12-28T11:55:17Z</time>
      </trkpt>
      <trkpt lat="35.978740" lon="-119.957080">
        <ele>108.017</ele>
        <time>2018-12-28T11:55:37Z</time>
      </trkpt>
      <trkpt lat="35.979050" lon="-119.957400">
        <ele>114.408</ele>
        <time>2018-12-28T11:55:57Z</time>
      </trkpt>
      <trkpt lat="35.979520" lon="-119.957860">
        <ele>121.121</ele>
        <time>2018-12-28T11:56:17Z</time>
      </trkpt>
      <trkpt lat="35.980520" lon="-119.958900">
        <ele>126.319</ele>
        <time>2018-12-28T11:56:37Z</time>
      </trkpt>
      <trkpt lat="35.981310" lon="-119.959700">
        <ele>132.734</ele>
        <time>2018-12-28T11:56:57Z</time>
      </trkpt>
      <trkpt lat="35.981870" lon="-119.960270">
        <ele>130.823</ele>
        <time>2018-12-28T11:57:17Z</time>
      </trkpt>
      <trkpt lat="35.982430" lon="-119.960850">
        <ele>129.957</ele>
        <time>2018-12-28T11:57:37Z</time>
      </trkpt>
      <trkpt lat="35.984050" lon="-119.962470">
        <ele>131.920</ele>
        <time>2018-12-28T11:57:57Z</time>
      </trkpt>
      <trkpt lat="35.984350" lon="-119.962770">
        <ele>129.084</ele>
        <time>2018-12-28T11:58:17Z</time>
      </trkpt>
      <trkpt lat="35.984960" lon="-119.963320">
        <ele>136.417</ele>
        <time>2018-12-28T11:58:37Z</time>
      </trkpt>
      <trkpt lat="35.985190" lon="-119.963570">
        <ele>128.627</ele>
        <time>2018-12-28T11:58:57Z</time>
      </trkpt>
      <trkpt lat="35.986000" lon="-119.964340">
        <ele>130.668</ele>
        <time>2018-12-28T11:59:17Z</time>
      </trkpt>
      <trkpt lat="35.986910" lon="-119.965190">
        <ele>143.114</ele>
        <time>2018-12-28T11:59:37Z</time>
      </trkpt>
      <trkpt lat="35.987440" lon="-119.965680">
        <ele>145.208</ele>
        <time>2018-12-28T11:59:57Z</time>
      </trkpt>
      <trkpt lat="35.988050" lon="-119.966280">
        <ele>136.635</ele>
        <time>2018-12-28T12:00:17Z</time>
      </trkpt>
      <trkpt lat="35.988390" lon="-119.966600">
        <ele>138.873</ele>
        <time>2018-12-28T12:00:37Z</time>
      </trkpt>
      <trkpt lat="35.988690" lon="-119.966870">
        <ele>143.658</ele>
        <time>2018-12-28T12:00:57Z</time>
      </trkpt>
      <trkpt lat="35.988780" lon="-119.966960">
        <ele>143.087</ele>
        <time>2018-12-28T12:01:17Z</time>
      </trkpt>
      <trkpt lat="35.989050" lon="-119.967230">
        <ele>138.731</ele>
        <time>2018-12-28T12:01:37Z</time>
      </trkpt>
      <trkpt lat="35.989710" lon="-119.967840">
        <ele>140.324</ele>
        <time>2018-12-28T12:01:57Z</time>
      </trkpt>
      <trkpt lat="35.990720" lon="-119.968850">
        <ele>123.888</ele>
        <time>2018-12-28T12:02:17Z</time>
      </trkpt>
      <trkpt lat="35.994370" lon="-119.972370">
        <ele>126.151</ele>
        <time>2018-12-28T12:02:37Z</time>
      </trkpt>
      <trkpt lat="35.994760" lon="-119.972750">
        <ele>123.438</ele>
        <time>2018-12-28T12:02:57Z</time>
      </trkpt>
      <trkpt lat="35.995500" lon="-119.973440">
        <ele>130.370</ele>
        <time>2018-12-28T12:03:17Z</time>
      </trkpt>
      <trkpt lat="35.996450" lon="-119.974310">
        <ele>138.617</ele>
        <time>2018-12-28T12:03:37Z</time>
      </trkpt>
      <trkpt lat="35.997150" lon="-119.975000">
        <ele>138.108</ele>
        <time>2018-12-28T12:03:57Z</time>
      </trkpt>
      <trkpt lat="35.997780" lon="-119.975580">
        <ele>144.076</ele>
        <time>2018-12-28T12:04:17Z</time>
      </trkpt>
      <trkpt lat="35.998200" lon="-119.975980">
        <ele>146.794</ele>
        <time>2018-12-28T12:04:37Z</time>
      </trkpt>
      <trkpt lat="35.999230" lon="-119.977020">
        <ele>130.219</ele>
        <time>2018-12-28T12:04:57Z</time>
      </trkpt>
      <trkpt lat="35.999750" lon="-119.977500">
        <ele>135.638</ele>
        <time>2018-12-28T12:05:17Z</time>
      </trkpt>
      <trkpt lat="36.000480" lon="-119.978240">
        <ele>124.852</ele>
        <time>2018-12-28T12:05:37Z</time>
      </trkpt>
      <trkpt lat="36.001510" lon="-119.979170">
        <ele>136.485</ele>
        <time>2018-12-28T12:05:57Z</time>
      </trkpt>
      <trkpt lat="36.002440" lon="-119.980060">
        <ele>136.569</ele>
        <time>2018-12-28T12:06:17Z</time>
      </trkpt>
      <trkpt lat="36.003780" lon="-119.981310">
        <ele>141.942</ele>
        <time>2018-12-28T12:06:37Z</time>
      </trkpt>
      <trkpt lat="36.004090" lon="-119.981610">
        <ele>144.871</ele>
        <time>2018-12-28T12:06:57Z</time>
      </trkpt>
      <trkpt lat="36.004470" lon="-119.982040">
        <ele>141.341</ele>
        <time>2018-12-28T12:07:17Z</time>
      </trkpt>
      <trkpt lat="36.005160" lon="-119.982820">
        <ele>139.015</ele>
        <time>2018-12-28T12:07:37Z</time>
      </trkpt>
      <trkpt lat="36.006170" lon="-119.984140">
        <ele>128.008</ele>
        <time>2018-12-28T12:07:57Z</time>
      </trkpt>
      <trkpt lat="36.006510" lon="-119.984640">
        <ele>120.490</ele>
        <time>2018-12-28T12:08:17Z</time>
      </trkpt>
      <trkpt lat="36.007410" lon="-119.985960">
        <ele>137.718</ele>
        <time>2018-12-28T12:08:37Z</time>
      </trkpt>
      <trkpt lat="36.008060" lon="-119.986950">
        <ele>142.043</ele>
        <time>2018-12-28T12:08:57Z</time>
      </trkpt>
      <trkpt lat="36.008470" lon="-119.987550">
        <ele>148.612</ele>
        <time>2018-12-28T12:09:17Z</time>
      </trkpt>
      <trkpt lat="36.008950" lon="-119.988290">
        <ele>150.456</ele>
        <time>2018-12-28T12:09:37Z</time>
      </trkpt>
      <trkpt lat="36.009670" lon="-119.989470">
        <ele>137.739</ele>
        <time>2018-12-28T12:09:57Z</time>
      </trkpt>
      <trkpt lat="36.010570" lon="-119.990840">
        <ele>143.873</ele>
        <time>2018-12-28T12:10:17Z</time>
      </trkpt>
      <trkpt lat="36.012230" lon="-119.993520">
        <ele>126.526</ele>
        <time>2018-12-28T12:10:37Z</time>
      </trkpt>
      <trkpt lat="36.012730" lon="-119.994240">
        <ele>141.523</ele>
        <time>2018-12-28T12:10:57Z</time>
      </trkpt>
      <trkpt lat="36.012980" lon="-119.994600">
        <ele>139.583</ele>
        <time>2018-12-28T12:11:17Z</time>
      </trkpt>
      <trkpt lat="36.013220" lon="-119.994980">
        <ele>139.011</ele>
        <time>2018-12-28T12:11:37Z</time>
      </trkpt>
      <trkpt lat="36.013470" lon="-119.995370">
        <ele>139.308</ele>
        <time>2018-12-28T12:11:57Z</time>
      </trkpt>
      <trkpt lat="36.013710" lon="-119.995740">
        <ele>142.285</ele>
        <time>2018-12-28T12:12:17Z</time>
      </trkpt>
      <trkpt lat="36.013950" lon="-119.996130">
        <ele>144.063</ele>
        <time>2018-12-28T12:12:37Z</time>
      </trkpt>
      <trkpt lat="36.014210" lon="-119.996520">
        <ele>146.358</ele>
        <time>2018-12-28T12:12:57Z</time>
      </trkpt>
      <trkpt lat="36.014510" lon="-119.997000">
        <ele>150.217</ele>
        <time>2018-12-28T12:13:17Z</time>
      </trkpt>
      <trkpt lat="36.014840" lon="-119.997500">
        <ele>153.611</ele>
        <time>2018-12-28T12:13:37Z</time>
      </trkpt>
      <trkpt lat="36.015160" lon="-119.998000">
        <ele>155.334</ele>
        <time>2018-12-28T12:13:57Z</time>
      </trkpt>
      <trkpt lat="36.015560" lon="-119.998630">
        <ele>154.088</ele>
        <time>2018-12-28T12:14:17Z</time>
      </trkpt>
      <trkpt lat="36.015880" lon="-119.999130">
        <ele>152.091</ele>
        <time>2018-12-28T12:14:37Z</time>
      </trkpt>
      <trkpt lat="36.016060" lon="-119.999390">
        <ele>150.388</ele>
        <time>2018-12-28T12:14:57Z</time>
      </trkpt>
      <trkpt lat="36.016380" lon="-119.999900">
        <ele>148.924</ele>
        <time>2018-12-28T12:15:17Z</time>
      </trkpt>
      <trkpt lat="36.017500" lon="-120.001640">
        <ele>153.326</ele>
        <time>2018-12-28T12:15:37Z</time>
      </trkpt>
      <trkpt lat="36.017830" lon="-120.002150">
        <ele>156.308</ele>
        <time>2018-12-28T12:15:57Z</time>
      </trkpt>
      <trkpt lat="36.018240" lon="-120.002780">
        <ele>156.491</ele>
        <time>2018-12-28T12:16:17Z</time>
      </trkpt>
      <trkpt lat="36.018600" lon="-120.003340">
        <ele>157.129</ele>
        <time>2018-12-28T12:16:37Z</time>
      </trkpt>
      <trkpt lat="36.018800" lon="-120.003660">
        <ele>158.274</ele>
        <time>2018-12-28T12:16:57Z</time>
      </trkpt>
      <trkpt lat="36.019120" lon="-120.004150">
        <ele>148.623</ele>
        <time>2018-12-28T12:17:17Z</time>
      </trkpt>
      <trkpt lat="36.019370" lon="-120.004540">
        <ele>156.317</ele>
        <time>2018-12-28T12:17:37Z</time>
      </trkpt>
      <trkpt lat="36.019610" lon="-120.004910">
        <ele>151.080</ele>
        <time>2018-12-28T12:17:57Z</time>
      </trkpt>
      <trkpt lat="36.019850" lon="-120.005290">
        <ele>147.654</ele>
        <time>2018-12-28T12:18:17Z</time>
      </trkpt>
      <trkpt lat="36.020090" lon="-120.005660">
        <ele>158.987</ele>
        <time>2018-12-28T12:18:37Z</time>
      </trkpt>
      <trkpt lat="36.020270" lon="-120.005930">
        <ele>161.441</ele>
        <time>2018-12-28T12:18:57Z</time>
      </trkpt>
      <trkpt lat="36.020540" lon="-120.006350">
        <ele>162.781</ele>
        <time>2018-12-28T12:19:17Z</time>
      </trkpt>
      <trkpt lat="36.020740" lon="-120.006670">
        <ele>162.909</ele>
        <time>2018-12-28T12:19:37Z</time>
      </trkpt>
      <trkpt lat="36.020910" lon="-120.006930">
        <ele>162.808</ele>
        <time>2018-12-28T12:19:57Z</time>
      </trkpt>
      <trkpt lat="36.021070" lon="-120.007180">
        <ele>162.917</ele>
        <time>2018-12-28T12:20:17Z</time>
      </trkpt>
      <trkpt lat="36.021230" lon="-120.007420">
        <ele>163.015</ele>
        <time>2018-12-28T12:20:37Z</time>
      </trkpt>
      <trkpt lat="36.021320" lon="-120.007570">
        <ele>163.250</ele>
        <time>2018-12-28T12:20:57Z</time>
      </trkpt>
      <trkpt lat="36.021470" lon="-120.007800">
        <ele>163.439</ele>
        <time>2018-12-28T12:21:17Z</time>
      </trkpt>
      <trkpt lat="36.021630" lon="-120.008060">
        <ele>163.793</ele>
        <time>2018-12-28T12:21:37Z</time>
      </trkpt>
      <trkpt lat="36.021820" lon="-120.008340">
        <ele>163.936</ele>
        <time>2018-12-28T12:21:57Z</time>
      </trkpt>
      <trkpt lat="36.022120" lon="-120.008810">
        <ele>164.420</ele>
        <time>2018-12-28T12:22:17Z</time>
      </trkpt>
      <trkpt lat="36.022440" lon="-120.009310">
        <ele>164.563</ele>
        <time>2018-12-28T12:22:37Z</time>
      </trkpt>
      <trkpt lat="36.022770" lon="-120.009810">
        <ele>165.082</ele>
        <time>2018-12-28T12:22:57Z</time>
      </trkpt>
      <trkpt lat="36.023010" lon="-120.010190">
        <ele>165.443</ele>
        <time>2018-12-28T12:23:17Z</time>
      </trkpt>
      <trkpt lat="36.023500" lon="-120.010950">
        <ele>164.917</ele>
        <time>2018-12-28T12:23:37Z</time>
      </trkpt>
      <trkpt lat="36.023660" lon="-120.011200">
        <ele>164.208</ele>
        <time>2018-12-28T12:23:57Z</time>
      </trkpt>
      <trkpt lat="36.024200" lon="-120.012040">
        <ele>161.311</ele>
        <time>2018-12-28T12:24:17Z</time>
      </trkpt>
      <trkpt lat="36.024630" lon="-120.012690">
        <ele>158.059</ele>
        <time>2018-12-28T12:24:37Z</time>
      </trkpt>
      <trkpt lat="36.024860" lon="-120.013030">
        <ele>154.454</ele>
        <time>2018-12-28T12:24:57Z</time>
      </trkpt>
      <trkpt lat="36.024880" lon="-120.013050">
        <ele>154.213</ele>
        <time>2018-12-28T12:25:17Z</time>
      </trkpt>
      <trkpt lat="36.025210" lon="-120.013600">
        <ele>149.097</ele>
        <time>2018-12-28T12:25:37Z</time>
      </trkpt>
      <trkpt lat="36.025410" lon="-120.013890">
        <ele>142.660</ele>
        <time>2018-12-28T12:25:57Z</time>
      </trkpt>
      <trkpt lat="36.026050" lon="-120.014880">
        <ele>156.974</ele>
        <time>2018-12-28T12:26:17Z</time>
      </trkpt>
      <trkpt lat="36.026080" lon="-120.014940">
        <ele>157.577</ele>
        <time>2018-12-28T12:26:37Z</time>
      </trkpt>
      <trkpt lat="36.026250" lon="-120.015210">
        <ele>159.998</ele>
        <time>2018-12-28T12:26:57Z</time>
      </trkpt>
      <trkpt lat="36.026720" lon="-120.015930">
        <ele>159.915</ele>
        <time>2018-12-28T12:27:17Z</time>
      </trkpt>
      <trkpt lat="36.027210" lon="-120.016700">
        <ele>164.326</ele>
        <time>2018-12-28T12:27:37Z</time>
      </trkpt>
      <trkpt lat="36.027530" lon="-120.017220">
        <ele>166.708</ele>
        <time>2018-12-28T12:27:57Z</time>
      </trkpt>
      <trkpt lat="36.027690" lon="-120.017470">
        <ele>167.652</ele>
        <time>2018-12-28T12:28:17Z</time>
      </trkpt>
      <trkpt lat="36.027930" lon="-120.017850">
        <ele>169.290</ele>
        <time>2018-12-28T12:28:37Z</time>
      </trkpt>
      <trkpt lat="36.028250" lon="-120.018360">
        <ele>171.195</ele>
        <time>2018-12-28T12:28:57Z</time>
      </trkpt>
      <trkpt lat="36.028570" lon="-120.018880">
        <ele>172.794</ele>
        <time>2018-12-28T12:29:17Z</time>
      </trkpt>
      <trkpt lat="36.028950" lon="-120.019530">
        <ele>174.788</ele>
        <time>2018-12-28T12:29:37Z</time>
      </trkpt>
      <trkpt lat="36.029180" lon="-120.019910">
        <ele>174.151</ele>
        <time>2018-12-28T12:29:57Z</time>
      </trkpt>
      <trkpt lat="36.029540" lon="-120.020540">
        <ele>171.135</ele>
        <time>2018-12-28T12:30:17Z</time>
      </trkpt>
      <trkpt lat="36.030020" lon="-120.021410">
        <ele>172.058</ele>
        <time>2018-12-28T12:30:37Z</time>
      </trkpt>
      <trkpt lat="36.030570" lon="-120.022410">
        <ele>174.038</ele>
        <time>2018-12-28T12:30:57Z</time>
      </trkpt>
      <trkpt lat="36.031080" lon="-120.023340">
        <ele>171.370</ele>
        <time>2018-12-28T12:31:17Z</time>
      </trkpt>
      <trkpt lat="36.031450" lon="-120.024030">
        <ele>174.017</ele>
        <time>2018-12-28T12:31:37Z</time>
      </trkpt>
      <trkpt lat="36.031790" lon="-120.024610">
        <ele>169.608</ele>
        <time>2018-12-28T12:31:57Z</time>
      </trkpt>
      <trkpt lat="36.033690" lon="-120.028050">
        <ele>148.426</ele>
        <time>2018-12-28T12:32:17Z</time>
      </trkpt>
      <trkpt lat="36.033860" lon="-120.028350">
        <ele>154.934</ele>
        <time>2018-12-28T12:32:37Z</time>
      </trkpt>
      <trkpt lat="36.034000" lon="-120.028640">
        <ele>161.569</ele>
        <time>2018-12-28T12:32:57Z</time>
      </trkpt>
      <trkpt lat="36.034150" lon="-120.028920">
        <ele>165.368</ele>
        <time>2018-12-28T12:33:17Z</time>
      </trkpt>
      <trkpt lat="36.034290" lon="-120.029200">
        <ele>168.572</ele>
        <time>2018-12-28T12:33:37Z</time>
      </trkpt>
      <trkpt lat="36.034440" lon="-120.029470">
        <ele>171.035</ele>
        <time>2018-12-28T12:33:57Z</time>
      </trkpt>
      <trkpt lat="36.034660" lon="-120.029880">
        <ele>172.669</ele>
        <time>2018-12-28T12:34:17Z</time>
      </trkpt>
      <trkpt lat="36.035170" lon="-120.030790">
        <ele>169.192</ele>
        <time>2018-12-28T12:34:37Z</time>
      </trkpt>
      <trkpt lat="36.035390" lon="-120.031190">
        <ele>169.147</ele>
        <time>2018-12-28T12:34:57Z</time>
      </trkpt>
      <trkpt lat="36.035460" lon="-120.031320">
        <ele>168.829</ele>
        <time>2018-12-28T12:35:17Z</time>
      </trkpt>
      <trkpt lat="36.035830" lon="-120.032000">
        <ele>170.821</ele>
        <time>2018-12-28T12:35:37Z</time>
      </trkpt>
      <trkpt lat="36.035970" lon="-120.032270">
        <ele>172.308</ele>
        <time>2018-12-28T12:35:57Z</time>
      </trkpt>
      <trkpt lat="36.036190" lon="-120.032670">
        <ele>173.927</ele>
        <time>2018-12-28T12:36:17Z</time>
      </trkpt>
      <trkpt lat="36.036340" lon="-120.032940">
        <ele>174.685</ele>
        <time>2018-12-28T12:36:37Z</time>
      </trkpt>
      <trkpt lat="36.036480" lon="-120.033210">
        <ele>175.260</ele>
        <time>2018-12-28T12:36:57Z</time>
      </trkpt>
      <trkpt lat="36.036550" lon="-120.033340">
        <ele>175.259</ele>
        <time>2018-12-28T12:37:17Z</time>
      </trkpt>
      <trkpt lat="36.036870" lon="-120.033900">
        <ele>170.563</ele>
        <time>2018-12-28T12:37:37Z</time>
      </trkpt>
      <trkpt lat="36.037770" lon="-120.035480">
        <ele>153.576</ele>
        <time>2018-12-28T12:37:57Z</time>
      </trkpt>
      <trkpt lat="36.037870" lon="-120.035680">
        <ele>159.620</ele>
        <time>2018-12-28T12:38:17Z</time>
      </trkpt>
      <trkpt lat="36.038040" lon="-120.036010">
        <ele>164.493</ele>
        <time>2018-12-28T12:38:37Z</time>
      </trkpt>
      <trkpt lat="36.038170" lon="-120.036230">
        <ele>165.941</ele>
        <time>2018-12-28T12:38:57Z</time>
      </trkpt>
      <trkpt lat="36.038310" lon="-120.036500">
        <ele>166.981</ele>
        <time>2018-12-28T12:39:17Z</time>
      </trkpt>
      <trkpt lat="36.038380" lon="-120.036630">
        <ele>167.209</ele>
        <time>2018-12-28T12:39:37Z</time>
      </trkpt>
      <trkpt lat="36.038520" lon="-120.036890">
        <ele>167.408</ele>
        <time>2018-12-28T12:39:57Z</time>
      </trkpt>
      <trkpt lat="36.038600" lon="-120.037030">
        <ele>167.457</ele>
        <time>2018-12-28T12:40:17Z</time>
      </trkpt>
      <trkpt lat="36.038750" lon="-120.037300">
        <ele>167.675</ele>
        <time>2018-12-28T12:40:37Z</time>
      </trkpt>
      <trkpt lat="36.038890" lon="-120.037560">
        <ele>167.950</ele>
        <time>2018-12-28T12:40:57Z</time>
      </trkpt>
      <trkpt lat="36.038980" lon="-120.037720">
        <ele>168.149</ele>
        <time>2018-12-28T12:41:17Z</time>
      </trkpt>
      <trkpt lat="36.039120" lon="-120.037970">
        <ele>168.423</ele>
        <time>2018-12-28T12:41:37Z</time>
      </trkpt>
      <trkpt lat="36.039330" lon="-120.038360">
        <ele>168.676</ele>
        <time>2018-12-28T12:41:57Z</time>
      </trkpt>
      <trkpt lat="36.039440" lon="-120.038560">
        <ele>168.810</ele>
        <time>2018-12-28T12:42:17Z</time>
      </trkpt>
      <trkpt lat="36.039760" lon="-120.039150">
        <ele>170.533</ele>
        <time>2018-12-28T12:42:37Z</time>
      </trkpt>
      <trkpt lat="36.040060" lon="-120.039690">
        <ele>172.994</ele>
        <time>2018-12-28T12:42:57Z</time>
      </trkpt>
      <trkpt lat="36.040490" lon="-120.040470">
        <ele>172.857</ele>
        <time>2018-12-28T12:43:17Z</time>
      </trkpt>
      <trkpt lat="36.040780" lon="-120.040990">
        <ele>164.822</ele>
        <time>2018-12-28T12:43:37Z</time>
      </trkpt>
      <trkpt lat="36.040930" lon="-120.041230">
        <ele>160.108</ele>
        <time>2018-12-28T12:43:57Z</time>
      </trkpt>
      <trkpt lat="36.041080" lon="-120.041490">
        <ele>153.422</ele>
        <time>2018-12-28T12:44:17Z</time>
      </trkpt>
      <trkpt lat="36.041220" lon="-120.041760">
        <ele>157.150</ele>
        <time>2018-12-28T12:44:37Z</time>
      </trkpt>
      <trkpt lat="36.041370" lon="-120.042040">
        <ele>162.595</ele>
        <time>2018-12-28T12:44:57Z</time>
      </trkpt>
      <trkpt lat="36.041520" lon="-120.042310">
        <ele>158.794</ele>
        <time>2018-12-28T12:45:17Z</time>
      </trkpt>
      <trkpt lat="36.041880" lon="-120.042960">
        <ele>161.198</ele>
        <time>2018-12-28T12:45:37Z</time>
      </trkpt>
      <trkpt lat="36.042100" lon="-120.043390">
        <ele>171.221</ele>
        <time>2018-12-28T12:45:57Z</time>
      </trkpt>
      <trkpt lat="36.042530" lon="-120.044200">
        <ele>177.345</ele>
        <time>2018-12-28T12:46:17Z</time>
      </trkpt>
      <trkpt lat="36.042830" lon="-120.044730">
        <ele>177.388</ele>
        <time>2018-12-28T12:46:37Z</time>
      </trkpt>
      <trkpt lat="36.043270" lon="-120.045540">
        <ele>177.885</ele>
        <time>2018-12-28T12:46:57Z</time>
      </trkpt>
      <trkpt lat="36.043550" lon="-120.046060">
        <ele>178.789</ele>
        <time>2018-12-28T12:47:17Z</time>
      </trkpt>
      <trkpt lat="36.044220" lon="-120.047220">
        <ele>161.917</ele>
        <time>2018-12-28T12:47:37Z</time>
      </trkpt>
      <trkpt lat="36.044430" lon="-120.047590">
        <ele>161.908</ele>
        <time>2018-12-28T12:47:57Z</time>
      </trkpt>
      <trkpt lat="36.044650" lon="-120.048020">
        <ele>167.971</ele>
        <time>2018-12-28T12:48:17Z</time>
      </trkpt>
      <trkpt lat="36.044800" lon="-120.048300">
        <ele>171.939</ele>
        <time>2018-12-28T12:48:37Z</time>
      </trkpt>
      <trkpt lat="36.045310" lon="-120.049220">
        <ele>173.884</ele>
        <time>2018-12-28T12:48:57Z</time>
      </trkpt>
      <trkpt lat="36.045820" lon="-120.050160">
        <ele>176.623</ele>
        <time>2018-12-28T12:49:17Z</time>
      </trkpt>
      <trkpt lat="36.046040" lon="-120.050560">
        <ele>175.047</ele>
        <time>2018-12-28T12:49:37Z</time>
      </trkpt>
      <trkpt lat="36.046330" lon="-120.051080">
        <ele>170.720</ele>
        <time>2018-12-28T12:49:57Z</time>
      </trkpt>
      <trkpt lat="36.046480" lon="-120.051340">
        <ele>172.564</ele>
        <time>2018-12-28T12:50:17Z</time>
      </trkpt>
      <trkpt lat="36.046550" lon="-120.051470">
        <ele>171.747</ele>
        <time>2018-12-28T12:50:37Z</time>
      </trkpt>
      <trkpt lat="36.046800" lon="-120.051900">
        <ele>166.644</ele>
        <time>2018-12-28T12:50:57Z</time>
      </trkpt>
      <trkpt lat="36.047000" lon="-120.052270">
        <ele>172.005</ele>
        <time>2018-12-28T12:51:17Z</time>
      </trkpt>
      <trkpt lat="36.047220" lon="-120.052650">
        <ele>174.015</ele>
        <time>2018-12-28T12:51:37Z</time>
      </trkpt>
      <trkpt lat="36.047460" lon="-120.053070">
        <ele>175.208</ele>
        <time>2018-12-28T12:51:57Z</time>
      </trkpt>
      <trkpt lat="36.047830" lon="-120.053680">
        <ele>177.057</ele>
        <time>2018-12-28T12:52:17Z</time>
      </trkpt>
      <trkpt lat="36.048150" lon="-120.054220">
        <ele>178.065</ele>
        <time>2018-12-28T12:52:37Z</time>
      </trkpt>
      <trkpt lat="36.048580" lon="-120.054940">
        <ele>178.750</ele>
        <time>2018-12-28T12:52:57Z</time>
      </trkpt>
      <trkpt lat="36.049590" lon="-120.056610">
        <ele>178.399</ele>
        <time>2018-12-28T12:53:17Z</time>
      </trkpt>
      <trkpt lat="36.050640" lon="-120.058340">
        <ele>175.813</ele>
        <time>2018-12-28T12:53:37Z</time>
      </trkpt>
      <trkpt lat="36.051620" lon="-120.059980">
        <ele>181.576</ele>
        <time>2018-12-28T12:53:57Z</time>
      </trkpt>
      <trkpt lat="36.052170" lon="-120.060890">
        <ele>180.740</ele>
        <time>2018-12-28T12:54:17Z</time>
      </trkpt>
      <trkpt lat="36.052800" lon="-120.061930">
        <ele>170.843</ele>
        <time>2018-12-28T12:54:37Z</time>
      </trkpt>
      <trkpt lat="36.053170" lon="-120.062540">
        <ele>175.596</ele>
        <time>2018-12-28T12:54:57Z</time>
      </trkpt>
      <trkpt lat="36.053540" lon="-120.063160">
        <ele>183.731</ele>
        <time>2018-12-28T12:55:17Z</time>
      </trkpt>
      <trkpt lat="36.053890" lon="-120.063740">
        <ele>178.324</ele>
        <time>2018-12-28T12:55:37Z</time>
      </trkpt>
      <trkpt lat="36.054010" lon="-120.063930">
        <ele>173.408</ele>
        <time>2018-12-28T12:55:57Z</time>
      </trkpt>
      <trkpt lat="36.055340" lon="-120.066130">
        <ele>165.182</ele>
        <time>2018-12-28T12:56:17Z</time>
      </trkpt>
      <trkpt lat="36.055420" lon="-120.066280">
        <ele>162.570</ele>
        <time>2018-12-28T12:56:37Z</time>
      </trkpt>
      <trkpt lat="36.055500" lon="-120.066400">
        <ele>162.375</ele>
        <time>2018-12-28T12:56:57Z</time>
      </trkpt>
      <trkpt lat="36.060820" lon="-120.075240">
        <ele>171.314</ele>
        <time>2018-12-28T12:57:17Z</time>
      </trkpt>
      <trkpt lat="36.060930" lon="-120.075410">
        <ele>171.168</ele>
        <time>2018-12-28T12:57:37Z</time>
      </trkpt>
      <trkpt lat="36.061250" lon="-120.075960">
        <ele>171.511</ele>
        <time>2018-12-28T12:57:57Z</time>
      </trkpt>
      <trkpt lat="36.062220" lon="-120.077540">
        <ele>170.455</ele>
        <time>2018-12-28T12:58:17Z</time>
      </trkpt>
      <trkpt lat="36.062660" lon="-120.078290">
        <ele>170.298</ele>
        <time>2018-12-28T12:58:37Z</time>
      </trkpt>
      <trkpt lat="36.062980" lon="-120.078800">
        <ele>169.667</ele>
        <time>2018-12-28T12:58:57Z</time>
      </trkpt>
      <trkpt lat="36.063690" lon="-120.080000">
        <ele>169.181</ele>
        <time>2018-12-28T12:59:17Z</time>
      </trkpt>
      <trkpt lat="36.064520" lon="-120.081370">
        <ele>167.619</ele>
        <time>2018-12-28T12:59:37Z</time>
      </trkpt>
      <trkpt lat="36.065820" lon="-120.083520">
        <ele>166.008</ele>
        <time>2018-12-28T12:59:57Z</time>
      </trkpt>
      <trkpt lat="36.065860" lon="-120.083590">
        <ele>166.049</ele>
        <time>2018-12-28T13:00:17Z</time>
      </trkpt>
      <trkpt lat="36.066360" lon="-120.084410">
        <ele>166.777</ele>
        <time>2018-12-28T13:00:37Z</time>
      </trkpt>
      <trkpt lat="36.066890" lon="-120.085290">
        <ele>168.582</ele>
        <time>2018-12-28T13:00:57Z</time>
      </trkpt>
      <trkpt lat="36.067100" lon="-120.085640">
        <ele>168.241</ele>
        <time>2018-12-28T13:01:17Z</time>
      </trkpt>
      <trkpt lat="36.067640" lon="-120.086540">
        <ele>167.465</ele>
        <time>2018-12-28T13:01:37Z</time>
      </trkpt>
      <trkpt lat="36.068450" lon="-120.087910">
        <ele>165.828</ele>
        <time>2018-12-28T13:01:57Z</time>
      </trkpt>
      <trkpt lat="36.068760" lon="-120.088410">
        <ele>165.162</ele>
        <time>2018-12-28T13:02:17Z</time>
      </trkpt>
      <trkpt lat="36.069360" lon="-120.089400">
        <ele>164.595</ele>
        <time>2018-12-28T13:02:37Z</time>
      </trkpt>
      <trkpt lat="36.071040" lon="-120.092180">
        <ele>166.671</ele>
        <time>2018-12-28T13:02:57Z</time>
      </trkpt>
      <trkpt lat="36.071790" lon="-120.093430">
        <ele>167.041</ele>
        <time>2018-12-28T13:03:17Z</time>
      </trkpt>
      <trkpt lat="36.072050" lon="-120.093860">
        <ele>166.615</ele>
        <time>2018-12-28T13:03:37Z</time>
      </trkpt>
      <trkpt lat="36.072580" lon="-120.094750">
        <ele>165.908</ele>
        <time>2018-12-28T13:03:57Z</time>
      </trkpt>
      <trkpt lat="36.072740" lon="-120.095020">
        <ele>165.760</ele>
        <time>2018-12-28T13:04:17Z</time>
      </trkpt>
      <trkpt lat="36.073030" lon="-120.095490">
        <ele>165.558</ele>
        <time>2018-12-28T13:04:37Z</time>
      </trkpt>
      <trkpt lat="36.073210" lon="-120.095800">
        <ele>165.813</ele>
        <time>2018-12-28T13:04:57Z</time>
      </trkpt>
      <trkpt lat="36.073340" lon="-120.096000">
        <ele>166.122</ele>
        <time>2018-12-28T13:05:17Z</time>
      </trkpt>
      <trkpt lat="36.073590" lon="-120.096420">
        <ele>166.546</ele>
        <time>2018-12-28T13:05:37Z</time>
      </trkpt>
      <trkpt lat="36.073940" lon="-120.097000">
        <ele>166.839</ele>
        <time>2018-12-28T13:05:57Z</time>
      </trkpt>
      <trkpt lat="36.074210" lon="-120.097450">
        <ele>166.993</ele>
        <time>2018-12-28T13:06:17Z</time>
      </trkpt>
      <trkpt lat="36.074460" lon="-120.097860">
        <ele>167.136</ele>
        <time>2018-12-28T13:06:37Z</time>
      </trkpt>
      <trkpt lat="36.075010" lon="-120.098770">
        <ele>166.838</ele>
        <time>2018-12-28T13:06:57Z</time>
      </trkpt>
      <trkpt lat="36.075070" lon="-120.098870">
        <ele>166.770</ele>
        <time>2018-12-28T13:07:17Z</time>
      </trkpt>
      <trkpt lat="36.075230" lon="-120.099150">
        <ele>166.317</ele>
        <time>2018-12-28T13:07:37Z</time>
      </trkpt>
      <trkpt lat="36.075500" lon="-120.099600">
        <ele>166.708</ele>
        <time>2018-12-28T13:07:57Z</time>
      </trkpt>
      <trkpt lat="36.075760" lon="-120.100030">
        <ele>166.696</ele>
        <time>2018-12-28T13:08:17Z</time>
      </trkpt>
      <trkpt lat="36.075840" lon="-120.100170">
        <ele>166.534</ele>
        <time>2018-12-28T13:08:37Z</time>
      </trkpt>
      <trkpt lat="36.076400" lon="-120.101100">
        <ele>165.239</ele>
        <time>2018-12-28T13:08:57Z</time>
      </trkpt>
      <trkpt lat="36.076830" lon="-120.101790">
        <ele>166.538</ele>
        <time>2018-12-28T13:09:17Z</time>
      </trkpt>
      <trkpt lat="36.076940" lon="-120.101960">
        <ele>166.592</ele>
        <time>2018-12-28T13:09:37Z</time>
      </trkpt>
      <trkpt lat="36.077120" lon="-120.102230">
        <ele>166.435</ele>
        <time>2018-12-28T13:09:57Z</time>
      </trkpt>
      <trkpt lat="36.077370" lon="-120.102610">
        <ele>166.919</ele>
        <time>2018-12-28T13:10:17Z</time>
      </trkpt>
      <trkpt lat="36.077720" lon="-120.103110">
        <ele>166.952</ele>
        <time>2018-12-28T13:10:37Z</time>
      </trkpt>
      <trkpt lat="36.078370" lon="-120.103970">
        <ele>162.214</ele>
        <time>2018-12-28T13:10:57Z</time>
      </trkpt>
      <trkpt lat="36.078620" lon="-120.104280">
        <ele>161.754</ele>
        <time>2018-12-28T13:11:17Z</time>
      </trkpt>
      <trkpt lat="36.078830" lon="-120.104540">
        <ele>161.509</ele>
        <time>2018-12-28T13:11:37Z</time>
      </trkpt>
      <trkpt lat="36.078990" lon="-120.104740">
        <ele>161.508</ele>
        <time>2018-12-28T13:11:57Z</time>
      </trkpt>
      <trkpt lat="36.079190" lon="-120.104960">
        <ele>163.264</ele>
        <time>2018-12-28T13:12:17Z</time>
      </trkpt>
      <trkpt lat="36.079670" lon="-120.105480">
        <ele>166.472</ele>
        <time>2018-12-28T13:12:37Z</time>
      </trkpt>
      <trkpt lat="36.079690" lon="-120.105490">
        <ele>166.417</ele>
        <time>2018-12-28T13:12:57Z</time>
      </trkpt>
      <trkpt lat="36.080080" lon="-120.105890">
        <ele>166.726</ele>
        <time>2018-12-28T13:13:17Z</time>
      </trkpt>
      <trkpt lat="36.080170" lon="-120.105990">
        <ele>166.740</ele>
        <time>2018-12-28T13:13:37Z</time>
      </trkpt>
      <trkpt lat="36.080420" lon="-120.106240">
        <ele>166.783</ele>
        <time>2018-12-28T13:13:57Z</time>
      </trkpt>
      <trkpt lat="36.080990" lon="-120.106780">
        <ele>166.837</ele>
        <time>2018-12-28T13:14:17Z</time>
      </trkpt>
      <trkpt lat="36.081420" lon="-120.107170">
        <ele>167.490</ele>
        <time>2018-12-28T13:14:37Z</time>
      </trkpt>
      <trkpt lat="36.082370" lon="-120.108030">
        <ele>169.278</ele>
        <time>2018-12-28T13:14:57Z</time>
      </trkpt>
      <trkpt lat="36.086110" lon="-120.111450">
        <ele>165.333</ele>
        <time>2018-12-28T13:15:17Z</time>
      </trkpt>
      <trkpt lat="36.086290" lon="-120.111620">
        <ele>165.126</ele>
        <time>2018-12-28T13:15:37Z</time>
      </trkpt>
      <trkpt lat="36.086600" lon="-120.111900">
        <ele>164.808</ele>
        <time>2018-12-28T13:15:57Z</time>
      </trkpt>
      <trkpt lat="36.086690" lon="-120.111980">
        <ele>164.730</ele>
        <time>2018-12-28T13:16:17Z</time>
      </trkpt>
      <trkpt lat="36.087740" lon="-120.112940">
        <ele>164.188</ele>
        <time>2018-12-28T13:16:37Z</time>
      </trkpt>
      <trkpt lat="36.089010" lon="-120.114100">
        <ele>163.643</ele>
        <time>2018-12-28T13:16:57Z</time>
      </trkpt>
      <trkpt lat="36.089750" lon="-120.114770">
        <ele>163.292</ele>
        <time>2018-12-28T13:17:17Z</time>
      </trkpt>
      <trkpt lat="36.090270" lon="-120.115250">
        <ele>162.836</ele>
        <time>2018-12-28T13:17:37Z</time>
      </trkpt>
      <trkpt lat="36.091220" lon="-120.116120">
        <ele>161.919</ele>
        <time>2018-12-28T13:17:57Z</time>
      </trkpt>
      <trkpt lat="36.091810" lon="-120.116660">
        <ele>161.253</ele>
        <time>2018-12-28T13:18:17Z</time>
      </trkpt>
      <trkpt lat="36.092230" lon="-120.117040">
        <ele>160.866</ele>
        <time>2018-12-28T13:18:37Z</time>
      </trkpt>
      <trkpt lat="36.092900" lon="-120.117650">
        <ele>160.145</ele>
        <time>2018-12-28T13:18:57Z</time>
      </trkpt>
      <trkpt lat="36.093400" lon="-120.118100">
        <ele>159.647</ele>
        <time>2018-12-28T13:19:17Z</time>
      </trkpt>
      <trkpt lat="36.093580" lon="-120.118270">
        <ele>159.511</ele>
        <time>2018-12-28T13:19:37Z</time>
      </trkpt>
      <trkpt lat="36.093760" lon="-120.118430">
        <ele>159.308</ele>
        <time>2018-12-28T13:19:57Z</time>
      </trkpt>
      <trkpt lat="36.095970" lon="-120.120450">
        <ele>158.577</ele>
        <time>2018-12-28T13:20:17Z</time>
      </trkpt>
      <trkpt lat="36.097030" lon="-120.121420">
        <ele>158.325</ele>
        <time>2018-12-28T13:20:37Z</time>
      </trkpt>
      <trkpt lat="36.099030" lon="-120.123240">
        <ele>158.640</ele>
        <time>2018-12-28T13:20:57Z</time>
      </trkpt>
      <trkpt lat="36.100920" lon="-120.124980">
        <ele>156.459</ele>
        <time>2018-12-28T13:21:17Z</time>
      </trkpt>
      <trkpt lat="36.101220" lon="-120.125270">
        <ele>154.093</ele>
        <time>2018-12-28T13:21:37Z</time>
      </trkpt>
      <trkpt lat="36.101630" lon="-120.125630">
        <ele>154.946</ele>
        <time>2018-12-28T13:21:57Z</time>
      </trkpt>
      <trkpt lat="36.103330" lon="-120.127170">
        <ele>157.010</ele>
        <time>2018-12-28T13:22:17Z</time>
      </trkpt>
      <trkpt lat="36.104050" lon="-120.127820">
        <ele>157.113</ele>
        <time>2018-12-28T13:22:37Z</time>
      </trkpt>
      <trkpt lat="36.105380" lon="-120.129050">
        <ele>157.083</ele>
        <time>2018-12-28T13:22:57Z</time>
      </trkpt>
      <trkpt lat="36.105790" lon="-120.129430">
        <ele>156.825</ele>
        <time>2018-12-28T13:23:17Z</time>
      </trkpt>
      <trkpt lat="36.106370" lon="-120.129950">
        <ele>156.617</ele>
        <time>2018-12-28T13:23:37Z</time>
      </trkpt>
      <trkpt lat="36.108370" lon="-120.131770">
        <ele>154.908</ele>
        <time>2018-12-28T13:23:57Z</time>
      </trkpt>
      <trkpt lat="36.109060" lon="-120.132420">
        <ele>153.591</ele>
        <time>2018-12-28T13:24:17Z</time>
      </trkpt>
      <trkpt lat="36.111580" lon="-120.134730">
        <ele>150.139</ele>
        <time>2018-12-28T13:24:37Z</time>
      </trkpt>
      <trkpt lat="36.112860" lon="-120.135900">
        <ele>149.374</ele>
        <time>2018-12-28T13:24:57Z</time>
      </trkpt>
      <trkpt lat="36.113280" lon="-120.136280">
        <ele>149.113</ele>
        <time>2018-12-28T13:25:17Z</time>
      </trkpt>
      <trkpt lat="36.114240" lon="-120.137160">
        <ele>149.517</ele>
        <time>2018-12-28T13:25:37Z</time>
      </trkpt>
      <trkpt lat="36.115090" lon="-120.137940">
        <ele>149.370</ele>
        <time>2018-12-28T13:25:57Z</time>
      </trkpt>
      <trkpt lat="36.116040" lon="-120.138810">
        <ele>148.554</ele>
        <time>2018-12-28T13:26:17Z</time>
      </trkpt>
      <trkpt lat="36.118570" lon="-120.141120">
        <ele>145.347</ele>
        <time>2018-12-28T13:26:37Z</time>
      </trkpt>
      <trkpt lat="36.120070" lon="-120.142490">
        <ele>143.743</ele>
        <time>2018-12-28T13:26:57Z</time>
      </trkpt>
      <trkpt lat="36.121440" lon="-120.143730">
        <ele>141.964</ele>
        <time>2018-12-28T13:27:17Z</time>
      </trkpt>
      <trkpt lat="36.123340" lon="-120.145470">
        <ele>140.010</ele>
        <time>2018-12-28T13:27:37Z</time>
      </trkpt>
      <trkpt lat="36.127330" lon="-120.149110">
        <ele>138.908</ele>
        <time>2018-12-28T13:27:57Z</time>
      </trkpt>
      <trkpt lat="36.132240" lon="-120.153600">
        <ele>140.727</ele>
        <time>2018-12-28T13:28:17Z</time>
      </trkpt>
      <trkpt lat="36.133760" lon="-120.155000">
        <ele>141.855</ele>
        <time>2018-12-28T13:28:37Z</time>
      </trkpt>
      <trkpt lat="36.134060" lon="-120.155270">
        <ele>142.070</ele>
        <time>2018-12-28T13:28:57Z</time>
      </trkpt>
      <trkpt lat="36.136080" lon="-120.157110">
        <ele>142.989</ele>
        <time>2018-12-28T13:29:17Z</time>
      </trkpt>
      <trkpt lat="36.137310" lon="-120.158230">
        <ele>142.943</ele>
        <time>2018-12-28T13:29:37Z</time>
      </trkpt>
      <trkpt lat="36.137750" lon="-120.158630">
        <ele>142.976</ele>
        <time>2018-12-28T13:29:57Z</time>
      </trkpt>
      <trkpt lat="36.137780" lon="-120.158650">
        <ele>142.970</ele>
        <time>2018-12-28T13:30:17Z</time>
      </trkpt>
      <trkpt lat="36.137860" lon="-120.158730">
        <ele>142.973</ele>
        <time>2018-12-28T13:30:37Z</time>
      </trkpt>
      <trkpt lat="36.137940" lon="-120.158810">
        <ele>143.093</ele>
        <time>2018-12-28T13:30:57Z</time>
      </trkpt>
      <trkpt lat="36.140310" lon="-120.160970">
        <ele>143.665</ele>
        <time>2018-12-28T13:31:17Z</time>
      </trkpt>
      <trkpt lat="36.166630" lon="-120.185040">
        <ele>139.621</ele>
        <time>2018-12-28T13:31:37Z</time>
      </trkpt>
      <trkpt lat="36.171500" lon="-120.189500">
        <ele>144.208</ele>
        <time>2018-12-28T13:31:57Z</time>
      </trkpt>
      <trkpt lat="36.176370" lon="-120.193960">
        <ele>143.362</ele>
        <time>2018-12-28T13:32:17Z</time>
      </trkpt>
      <trkpt lat="36.176600" lon="-120.194170">
        <ele>143.310</ele>
        <time>2018-12-28T13:32:37Z</time>
      </trkpt>
      <trkpt lat="36.176840" lon="-120.194380">
        <ele>143.325</ele>
        <time>2018-12-28T13:32:57Z</time>
      </trkpt>
      <trkpt lat="36.177210" lon="-120.194720">
        <ele>143.414</ele>
        <time>2018-12-28T13:33:17Z</time>
      </trkpt>
      <trkpt lat="36.178020" lon="-120.195440">
        <ele>143.548</ele>
        <time>2018-12-28T13:33:37Z</time>
      </trkpt>
      <trkpt lat="36.178680" lon="-120.196000">
        <ele>143.681</ele>
        <time>2018-12-28T13:33:57Z</time>
      </trkpt>
      <trkpt lat="36.179570" lon="-120.196660">
        <ele>143.655</ele>
        <time>2018-12-28T13:34:17Z</time>
      </trkpt>
      <trkpt lat="36.180270" lon="-120.197130">
        <ele>143.718</ele>
        <time>2018-12-28T13:34:37Z</time>
      </trkpt>
      <trkpt lat="36.181320" lon="-120.197790">
        <ele>143.768</ele>
        <time>2018-12-28T13:34:57Z</time>
      </trkpt>
      <trkpt lat="36.181540" lon="-120.197930">
        <ele>143.742</ele>
        <time>2018-12-28T13:35:17Z</time>
      </trkpt>
      <trkpt lat="36.181570" lon="-120.197950">
        <ele>143.726</ele>
        <time>2018-12-28T13:35:37Z</time>
      </trkpt>
      <trkpt lat="36.181750" lon="-120.198070">
        <ele>143.808</ele>
        <time>2018-12-28T13:35:57Z</time>
      </trkpt>
      <trkpt lat="36.195670" lon="-120.206820">
        <ele>140.899</ele>
        <time>2018-12-28T13:36:17Z</time>
      </trkpt>
      <trkpt lat="36.203120" lon="-120.211510">
        <ele>139.457</ele>
        <time>2018-12-28T13:36:37Z</time>
      </trkpt>
      <trkpt lat="36.203290" lon="-120.211610">
        <ele>139.452</ele>
        <time>2018-12-28T13:36:57Z</time>
      </trkpt>
      <trkpt lat="36.210010" lon="-120.215850">
        <ele>137.041</ele>
        <time>2018-12-28T13:37:17Z</time>
      </trkpt>
      <trkpt lat="36.217170" lon="-120.220360">
        <ele>133.175</ele>
        <time>2018-12-28T13:37:37Z</time>
      </trkpt>
      <trkpt lat="36.218080" lon="-120.220930">
        <ele>133.168</ele>
        <time>2018-12-28T13:37:57Z</time>
      </trkpt>
      <trkpt lat="36.231260" lon="-120.229230">
        <ele>134.892</ele>
        <time>2018-12-28T13:38:17Z</time>
      </trkpt>
      <trkpt lat="36.231410" lon="-120.229330">
        <ele>134.945</ele>
        <time>2018-12-28T13:38:37Z</time>
      </trkpt>
      <trkpt lat="36.231420" lon="-120.229340">
        <ele>134.948</ele>
        <time>2018-12-28T13:38:57Z</time>
      </trkpt>
      <trkpt lat="36.231570" lon="-120.229430">
        <ele>135.061</ele>
        <time>2018-12-28T13:39:17Z</time>
      </trkpt>
      <trkpt lat="36.235080" lon="-120.231640">
        <ele>137.617</ele>
        <time>2018-12-28T13:39:37Z</time>
      </trkpt>
      <trkpt lat="36.236260" lon="-120.232380">
        <ele>138.608</ele>
        <time>2018-12-28T13:39:57Z</time>
      </trkpt>
      <trkpt lat="36.240010" lon="-120.234740">
        <ele>140.937</ele>
        <time>2018-12-28T13:40:17Z</time>
      </trkpt>
      <trkpt lat="36.243150" lon="-120.236720">
        <ele>143.335</ele>
        <time>2018-12-28T13:40:37Z</time>
      </trkpt>
      <trkpt lat="36.244480" lon="-120.237550">
        <ele>143.740</ele>
        <time>2018-12-28T13:40:57Z</time>
      </trkpt>
      <trkpt lat="36.247540" lon="-120.239490">
        <ele>145.149</ele>
        <time>2018-12-28T13:41:17Z</time>
      </trkpt>
      <trkpt lat="36.250910" lon="-120.241610">
        <ele>145.943</ele>
        <time>2018-12-28T13:41:37Z</time>
      </trkpt>
      <trkpt lat="36.251800" lon="-120.242170">
        <ele>145.636</ele>
        <time>2018-12-28T13:41:57Z</time>
      </trkpt>
      <trkpt lat="36.254370" lon="-120.243780">
        <ele>145.120</ele>
        <time>2018-12-28T13:42:17Z</time>
      </trkpt>
      <trkpt lat="36.255170" lon="-120.244290">
        <ele>145.473</ele>
        <time>2018-12-28T13:42:37Z</time>
      </trkpt>
      <trkpt lat="36.255870" lon="-120.244730">
        <ele>145.251</ele>
        <time>2018-12-28T13:42:57Z</time>
      </trkpt>
      <trkpt lat="36.258110" lon="-120.246150">
        <ele>142.801</ele>
        <time>2018-12-28T13:43:17Z</time>
      </trkpt>
      <trkpt lat="36.258490" lon="-120.246390">
        <ele>142.811</ele>
        <time>2018-12-28T13:43:37Z</time>
      </trkpt>
      <trkpt lat="36.258690" lon="-120.246510">
        <ele>142.708</ele>
        <time>2018-12-28T13:43:57Z</time>
      </trkpt>
      <trkpt lat="36.262000" lon="-120.248590">
        <ele>144.888</ele>
        <time>2018-12-28T13:44:17Z</time>
      </trkpt>
      <trkpt lat="36.264350" lon="-120.250070">
        <ele>145.736</ele>
        <time>2018-12-28T13:44:37Z</time>
      </trkpt>
      <trkpt lat="36.265620" lon="-120.250880">
        <ele>147.171</ele>
        <time>2018-12-28T13:44:57Z</time>
      </trkpt>
      <trkpt lat="36.266170" lon="-120.251220">
        <ele>147.350</ele>
        <time>2018-12-28T13:45:17Z</time>
      </trkpt>
      <trkpt lat="36.267960" lon="-120.252350">
        <ele>148.394</ele>
        <time>2018-12-28T13:45:37Z</time>
      </trkpt>
      <trkpt lat="36.268550" lon="-120.252720">
        <ele>148.287</ele>
        <time>2018-12-28T13:45:57Z</time>
      </trkpt>
      <trkpt lat="36.269540" lon="-120.253350">
        <ele>148.441</ele>
        <time>2018-12-28T13:46:17Z</time>
      </trkpt>
      <trkpt lat="36.270740" lon="-120.254110">
        <ele>149.054</ele>
        <time>2018-12-28T13:46:37Z</time>
      </trkpt>
      <trkpt lat="36.271930" lon="-120.254870">
        <ele>149.883</ele>
        <time>2018-12-28T13:46:57Z</time>
      </trkpt>
      <trkpt lat="36.273850" lon="-120.256070">
        <ele>151.825</ele>
        <time>2018-12-28T13:47:17Z</time>
      </trkpt>
      <trkpt lat="36.275840" lon="-120.257330">
        <ele>153.517</ele>
        <time>2018-12-28T13:47:37Z</time>
      </trkpt>
      <trkpt lat="36.286310" lon="-120.263920">
        <ele>160.908</ele>
        <time>2018-12-28T13:47:57Z</time>
      </trkpt>
      <trkpt lat="36.287080" lon="-120.264410">
        <ele>160.191</ele>
        <time>2018-12-28T13:48:17Z</time>
      </trkpt>
      <trkpt lat="36.287470" lon="-120.264660">
        <ele>159.619</ele>
        <time>2018-12-28T13:48:37Z</time>
      </trkpt>
      <trkpt lat="36.288320" lon="-120.265200">
        <ele>159.754</ele>
        <time>2018-12-28T13:48:57Z</time>
      </trkpt>
      <trkpt lat="36.289330" lon="-120.265830">
        <ele>159.133</ele>
        <time>2018-12-28T13:49:17Z</time>
      </trkpt>
      <trkpt lat="36.290390" lon="-120.266500">
        <ele>158.817</ele>
        <time>2018-12-28T13:49:37Z</time>
      </trkpt>
      <trkpt lat="36.290700" lon="-120.266700">
        <ele>158.880</ele>
        <time>2018-12-28T13:49:57Z</time>
      </trkpt>
      <trkpt lat="36.291560" lon="-120.267240">
        <ele>158.654</ele>
        <time>2018-12-28T13:50:17Z</time>
      </trkpt>
      <trkpt lat="36.291860" lon="-120.267430">
        <ele>158.417</ele>
        <time>2018-12-28T13:50:37Z</time>
      </trkpt>
      <trkpt lat="36.292000" lon="-120.267520">
        <ele>158.392</ele>
        <time>2018-12-28T13:50:57Z</time>
      </trkpt>
      <trkpt lat="36.293070" lon="-120.268200">
        <ele>157.273</ele>
        <time>2018-12-28T13:51:17Z</time>
      </trkpt>
      <trkpt lat="36.293360" lon="-120.268370">
        <ele>156.620</ele>
        <time>2018-12-28T13:51:37Z</time>
      </trkpt>
      <trkpt lat="36.294430" lon="-120.269020">
        <ele>154.908</ele>
        <time>2018-12-28T13:51:57Z</time>
      </trkpt>
      <trkpt lat="36.295180" lon="-120.269520">
        <ele>153.942</ele>
        <time>2018-12-28T13:52:17Z</time>
      </trkpt>
      <trkpt lat="36.297090" lon="-120.270740">
        <ele>156.790</ele>
        <time>2018-12-28T13:52:37Z</time>
      </trkpt>
      <trkpt lat="36.297660" lon="-120.271090">
        <ele>157.065</ele>
        <time>2018-12-28T13:52:57Z</time>
      </trkpt>
      <trkpt lat="36.298360" lon="-120.271520">
        <ele>154.744</ele>
        <time>2018-12-28T13:53:17Z</time>
      </trkpt>
      <trkpt lat="36.298950" lon="-120.271900">
        <ele>153.018</ele>
        <time>2018-12-28T13:53:37Z</time>
      </trkpt>
      <trkpt lat="36.299370" lon="-120.272190">
        <ele>153.151</ele>
        <time>2018-12-28T13:53:57Z</time>
      </trkpt>
      <trkpt lat="36.299720" lon="-120.272430">
        <ele>155.065</ele>
        <time>2018-12-28T13:54:17Z</time>
      </trkpt>
      <trkpt lat="36.300080" lon="-120.272690">
        <ele>155.878</ele>
        <time>2018-12-28T13:54:37Z</time>
      </trkpt>
      <trkpt lat="36.300350" lon="-120.272900">
        <ele>154.372</ele>
        <time>2018-12-28T13:54:57Z</time>
      </trkpt>
      <trkpt lat="36.300720" lon="-120.273180">
        <ele>153.113</ele>
        <time>2018-12-28T13:55:17Z</time>
      </trkpt>
      <trkpt lat="36.301080" lon="-120.273470">
        <ele>154.814</ele>
        <time>2018-12-28T13:55:37Z</time>
      </trkpt>
      <trkpt lat="36.301250" lon="-120.273610">
        <ele>155.608</ele>
        <time>2018-12-28T13:55:57Z</time>
      </trkpt>
      <trkpt lat="36.301700" lon="-120.274000">
        <ele>156.780</ele>
        <time>2018-12-28T13:56:17Z</time>
      </trkpt>
      <trkpt lat="36.301940" lon="-120.274200">
        <ele>155.428</ele>
        <time>2018-12-28T13:56:37Z</time>
      </trkpt>
      <trkpt lat="36.302110" lon="-120.274340">
        <ele>153.373</ele>
        <time>2018-12-28T13:56:57Z</time>
      </trkpt>
      <trkpt lat="36.302440" lon="-120.274620">
        <ele>155.072</ele>
        <time>2018-12-28T13:57:17Z</time>
      </trkpt>
      <trkpt lat="36.303730" lon="-120.275760">
        <ele>162.126</ele>
        <time>2018-12-28T13:57:37Z</time>
      </trkpt>
      <trkpt lat="36.304270" lon="-120.276230">
        <ele>163.329</ele>
        <time>2018-12-28T13:57:57Z</time>
      </trkpt>
      <trkpt lat="36.304500" lon="-120.276430">
        <ele>163.763</ele>
        <time>2018-12-28T13:58:17Z</time>
      </trkpt>
      <trkpt lat="36.304660" lon="-120.276560">
        <ele>163.446</ele>
        <time>2018-12-28T13:58:37Z</time>
      </trkpt>
      <trkpt lat="36.304770" lon="-120.276650">
        <ele>162.265</ele>
        <time>2018-12-28T13:58:57Z</time>
      </trkpt>
      <trkpt lat="36.304860" lon="-120.276720">
        <ele>160.868</ele>
        <time>2018-12-28T13:59:17Z</time>
      </trkpt>
      <trkpt lat="36.304950" lon="-120.276790">
        <ele>158.814</ele>
        <time>2018-12-28T13:59:37Z</time>
      </trkpt>
      <trkpt lat="36.305140" lon="-120.276940">
        <ele>155.908</ele>
        <time>2018-12-28T13:59:57Z</time>
      </trkpt>
      <trkpt lat="36.305340" lon="-120.277120">
        <ele>156.319</ele>
        <time>2018-12-28T14:00:17Z</time>
      </trkpt>
      <trkpt lat="36.305910" lon="-120.277620">
        <ele>161.897</ele>
        <time>2018-12-28T14:00:37Z</time>
      </trkpt>
      <trkpt lat="36.306180" lon="-120.277860">
        <ele>164.932</ele>
        <time>2018-12-28T14:00:57Z</time>
      </trkpt>
      <trkpt lat="36.306310" lon="-120.277980">
        <ele>166.361</ele>
        <time>2018-12-28T14:01:17Z</time>
      </trkpt>
      <trkpt lat="36.307910" lon="-120.279330">
        <ele>158.395</ele>
        <time>2018-12-28T14:01:37Z</time>
      </trkpt>
      <trkpt lat="36.308010" lon="-120.279410">
        <ele>157.278</ele>
        <time>2018-12-28T14:01:57Z</time>
      </trkpt>
      <trkpt lat="36.308280" lon="-120.279650">
        <ele>156.652</ele>
        <time>2018-12-28T14:02:17Z</time>
      </trkpt>
      <trkpt lat="36.308720" lon="-120.280040">
        <ele>160.345</ele>
        <time>2018-12-28T14:02:37Z</time>
      </trkpt>
      <trkpt lat="36.309360" lon="-120.280630">
        <ele>167.554</ele>
        <time>2018-12-28T14:02:57Z</time>
      </trkpt>
      <trkpt lat="36.309730" lon="-120.280950">
        <ele>171.156</ele>
        <time>2018-12-28T14:03:17Z</time>
      </trkpt>
      <trkpt lat="36.310320" lon="-120.281480">
        <ele>173.111</ele>
        <time>2018-12-28T14:03:37Z</time>
      </trkpt>
      <trkpt lat="36.311490" lon="-120.282470">
        <ele>171.208</ele>
        <time>2018-12-28T14:03:57Z</time>
      </trkpt>
      <trkpt lat="36.312010" lon="-120.282930">
        <ele>173.758</ele>
        <time>2018-12-28T14:04:17Z</time>
      </trkpt>
      <trkpt lat="36.312810" lon="-120.283640">
        <ele>176.816</ele>
        <time>2018-12-28T14:04:37Z</time>
      </trkpt>
      <trkpt lat="36.313340" lon="-120.284080">
        <ele>170.791</ele>
        <time>2018-12-28T14:04:57Z</time>
      </trkpt>
      <trkpt lat="36.313840" lon="-120.284470">
        <ele>161.950</ele>
        <time>2018-12-28T14:05:17Z</time>
      </trkpt>
      <trkpt lat="36.314110" lon="-120.284690">
        <ele>159.714</ele>
        <time>2018-12-28T14:05:37Z</time>
      </trkpt>
      <trkpt lat="36.314730" lon="-120.285220">
        <ele>159.747</ele>
        <time>2018-12-28T14:05:57Z</time>
      </trkpt>
      <trkpt lat="36.315220" lon="-120.285650">
        <ele>161.531</ele>
        <time>2018-12-28T14:06:17Z</time>
      </trkpt>
      <trkpt lat="36.317320" lon="-120.287490">
        <ele>166.214</ele>
        <time>2018-12-28T14:06:37Z</time>
      </trkpt>
      <trkpt lat="36.318970" lon="-120.288950">
        <ele>172.194</ele>
        <time>2018-12-28T14:06:57Z</time>
      </trkpt>
      <trkpt lat="36.319460" lon="-120.289400">
        <ele>175.357</ele>
        <time>2018-12-28T14:07:17Z</time>
      </trkpt>
      <trkpt lat="36.319760" lon="-120.289690">
        <ele>178.422</ele>
        <time>2018-12-28T14:07:37Z</time>
      </trkpt>
      <trkpt lat="36.320220" lon="-120.290120">
        <ele>178.508</ele>
        <time>2018-12-28T14:07:57Z</time>
      </trkpt>
      <trkpt lat="36.320510" lon="-120.290410">
        <ele>183.632</ele>
        <time>2018-12-28T14:08:17Z</time>
      </trkpt>
      <trkpt lat="36.322450" lon="-120.292260">
        <ele>185.990</ele>
        <time>2018-12-28T14:08:37Z</time>
      </trkpt>
      <trkpt lat="36.325490" lon="-120.295140">
        <ele>169.555</ele>
        <time>2018-12-28T14:08:57Z</time>
      </trkpt>
      <trkpt lat="36.326870" lon="-120.296500">
        <ele>177.644</ele>
        <time>2018-12-28T14:09:17Z</time>
      </trkpt>
      <trkpt lat="36.327020" lon="-120.296630">
        <ele>174.188</ele>
        <time>2018-12-28T14:09:37Z</time>
      </trkpt>
      <trkpt lat="36.327200" lon="-120.296790">
        <ele>171.451</ele>
        <time>2018-12-28T14:09:57Z</time>
      </trkpt>
      <trkpt lat="36.327570" lon="-120.297140">
        <ele>164.685</ele>
        <time>2018-12-28T14:10:17Z</time>
      </trkpt>
      <trkpt lat="36.327870" lon="-120.297410">
        <ele>159.648</ele>
        <time>2018-12-28T14:10:37Z</time>
      </trkpt>
      <trkpt lat="36.328680" lon="-120.298200">
        <ele>166.843</ele>
        <time>2018-12-28T14:10:57Z</time>
      </trkpt>
      <trkpt lat="36.328990" lon="-120.298500">
        <ele>170.564</ele>
        <time>2018-12-28T14:11:17Z</time>
      </trkpt>
      <trkpt lat="36.329400" lon="-120.298880">
        <ele>174.210</ele>
        <time>2018-12-28T14:11:37Z</time>
      </trkpt>
      <trkpt lat="36.329820" lon="-120.299260">
        <ele>174.808</ele>
        <time>2018-12-28T14:11:57Z</time>
      </trkpt>
      <trkpt lat="36.330140" lon="-120.299540">
        <ele>174.377</ele>
        <time>2018-12-28T14:12:17Z</time>
      </trkpt>
      <trkpt lat="36.330900" lon="-120.300210">
        <ele>171.835</ele>
        <time>2018-12-28T14:12:37Z</time>
      </trkpt>
      <trkpt lat="36.331210" lon="-120.300480">
        <ele>171.370</ele>
        <time>2018-12-28T14:12:57Z</time>
      </trkpt>
      <trkpt lat="36.331430" lon="-120.300670">
        <ele>168.559</ele>
        <time>2018-12-28T14:13:17Z</time>
      </trkpt>
      <trkpt lat="36.331960" lon="-120.301130">
        <ele>160.983</ele>
        <time>2018-12-28T14:13:37Z</time>
      </trkpt>
      <trkpt lat="36.332360" lon="-120.301490">
        <ele>159.486</ele>
        <time>2018-12-28T14:13:57Z</time>
      </trkpt>
      <trkpt lat="36.333300" lon="-120.302350">
        <ele>167.520</ele>
        <time>2018-12-28T14:14:17Z</time>
      </trkpt>
      <trkpt lat="36.334010" lon="-120.302980">
        <ele>165.723</ele>
        <time>2018-12-28T14:14:37Z</time>
      </trkpt>
      <trkpt lat="36.334810" lon="-120.303690">
        <ele>165.885</ele>
        <time>2018-12-28T14:14:57Z</time>
      </trkpt>
      <trkpt lat="36.334980" lon="-120.303840">
        <ele>165.189</ele>
        <time>2018-12-28T14:15:17Z</time>
      </trkpt>
      <trkpt lat="36.335360" lon="-120.304180">
        <ele>163.617</ele>
        <time>2018-12-28T14:15:37Z</time>
      </trkpt>
      <trkpt lat="36.335600" lon="-120.304390">
        <ele>163.008</ele>
        <time>2018-12-28T14:15:57Z</time>
      </trkpt>
      <trkpt lat="36.335940" lon="-120.304690">
        <ele>161.071</ele>
        <time>2018-12-28T14:16:17Z</time>
      </trkpt>
      <trkpt lat="36.336120" lon="-120.304850">
        <ele>161.669</ele>
        <time>2018-12-28T14:16:37Z</time>
      </trkpt>
      <trkpt lat="36.336540" lon="-120.305230">
        <ele>161.384</ele>
        <time>2018-12-28T14:16:57Z</time>
      </trkpt>
      <trkpt lat="36.337000" lon="-120.305650">
        <ele>165.993</ele>
        <time>2018-12-28T14:17:17Z</time>
      </trkpt>
      <trkpt lat="36.337320" lon="-120.305930">
        <ele>166.487</ele>
        <time>2018-12-28T14:17:37Z</time>
      </trkpt>
      <trkpt lat="36.337490" lon="-120.306090">
        <ele>166.620</ele>
        <time>2018-12-28T14:17:57Z</time>
      </trkpt>
      <trkpt lat="36.337780" lon="-120.306350">
        <ele>167.554</ele>
        <time>2018-12-28T14:18:17Z</time>
      </trkpt>
      <trkpt lat="36.337980" lon="-120.306530">
        <ele>166.167</ele>
        <time>2018-12-28T14:18:37Z</time>
      </trkpt>
      <trkpt lat="36.338990" lon="-120.307420">
        <ele>162.337</ele>
        <time>2018-12-28T14:18:57Z</time>
      </trkpt>
      <trkpt lat="36.340310" lon="-120.308600">
        <ele>161.849</ele>
        <time>2018-12-28T14:19:17Z</time>
      </trkpt>
      <trkpt lat="36.341570" lon="-120.309720">
        <ele>155.613</ele>
        <time>2018-12-28T14:19:37Z</time>
      </trkpt>
      <trkpt lat="36.342220" lon="-120.310290">
        <ele>153.608</ele>
        <time>2018-12-28T14:19:57Z</time>
      </trkpt>
      <trkpt lat="36.342320" lon="-120.310370">
        <ele>153.786</ele>
        <time>2018-12-28T14:20:17Z</time>
      </trkpt>
      <trkpt lat="36.342390" lon="-120.310430">
        <ele>154.064</ele>
        <time>2018-12-28T14:20:37Z</time>
      </trkpt>
      <trkpt lat="36.342830" lon="-120.310840">
        <ele>158.529</ele>
        <time>2018-12-28T14:20:57Z</time>
      </trkpt>
      <trkpt lat="36.344690" lon="-120.312500">
        <ele>160.488</ele>
        <time>2018-12-28T14:21:17Z</time>
      </trkpt>
      <trkpt lat="36.345470" lon="-120.313190">
        <ele>160.362</ele>
        <time>2018-12-28T14:21:37Z</time>
      </trkpt>
      <trkpt lat="36.346160" lon="-120.313800">
        <ele>158.025</ele>
        <time>2018-12-28T14:21:57Z</time>
      </trkpt>
      <trkpt lat="36.346430" lon="-120.314060">
        <ele>158.319</ele>
        <time>2018-12-28T14:22:17Z</time>
      </trkpt>
      <trkpt lat="36.347070" lon="-120.314620">
        <ele>160.492</ele>
        <time>2018-12-28T14:22:37Z</time>
      </trkpt>
      <trkpt lat="36.347880" lon="-120.315350">
        <ele>154.756</ele>
        <time>2018-12-28T14:22:57Z</time>
      </trkpt>
      <trkpt lat="36.348060" lon="-120.315500">
        <ele>154.259</ele>
        <time>2018-12-28T14:23:17Z</time>
      </trkpt>
      <trkpt lat="36.349020" lon="-120.316360">
        <ele>156.214</ele>
        <time>2018-12-28T14:23:37Z</time>
      </trkpt>
      <trkpt lat="36.349990" lon="-120.317240">
        <ele>156.808</ele>
        <time>2018-12-28T14:23:57Z</time>
      </trkpt>
      <trkpt lat="36.351440" lon="-120.318530">
        <ele>157.318</ele>
        <time>2018-12-28T14:24:17Z</time>
      </trkpt>
      <trkpt lat="36.352190" lon="-120.319200">
        <ele>157.926</ele>
        <time>2018-12-28T14:24:37Z</time>
      </trkpt>
      <trkpt lat="36.352420" lon="-120.319410">
        <ele>158.041</ele>
        <time>2018-12-28T14:24:57Z</time>
      </trkpt>
      <trkpt lat="36.352440" lon="-120.319430">
        <ele>158.050</ele>
        <time>2018-12-28T14:25:17Z</time>
      </trkpt>
      <trkpt lat="36.352650" lon="-120.319620">
        <ele>158.174</ele>
        <time>2018-12-28T14:25:37Z</time>
      </trkpt>
      <trkpt lat="36.352940" lon="-120.319880">
        <ele>158.377</ele>
        <time>2018-12-28T14:25:57Z</time>
      </trkpt>
      <trkpt lat="36.353460" lon="-120.320340">
        <ele>158.471</ele>
        <time>2018-12-28T14:26:17Z</time>
      </trkpt>
      <trkpt lat="36.354700" lon="-120.321440">
        <ele>158.344</ele>
        <time>2018-12-28T14:26:37Z</time>
      </trkpt>
      <trkpt lat="36.356260" lon="-120.322850">
        <ele>156.869</ele>
        <time>2018-12-28T14:26:57Z</time>
      </trkpt>
      <trkpt lat="36.357420" lon="-120.323870">
        <ele>155.304</ele>
        <time>2018-12-28T14:27:17Z</time>
      </trkpt>
      <trkpt lat="36.359050" lon="-120.325330">
        <ele>155.424</ele>
        <time>2018-12-28T14:27:37Z</time>
      </trkpt>
      <trkpt lat="36.362160" lon="-120.328110">
        <ele>156.908</ele>
        <time>2018-12-28T14:27:57Z</time>
      </trkpt>
      <trkpt lat="36.362380" lon="-120.328290">
        <ele>157.029</ele>
        <time>2018-12-28T14:28:17Z</time>
      </trkpt>
      <trkpt lat="36.364040" lon="-120.329770">
        <ele>158.287</ele>
        <time>2018-12-28T14:28:37Z</time>
      </trkpt>
      <trkpt lat="36.365930" lon="-120.331450">
        <ele>160.152</ele>
        <time>2018-12-28T14:28:57Z</time>
      </trkpt>
      <trkpt lat="36.366070" lon="-120.331600">
        <ele>160.331</ele>
        <time>2018-12-28T14:29:17Z</time>
      </trkpt>
      <trkpt lat="36.368850" lon="-120.334080">
        <ele>161.545</ele>
        <time>2018-12-28T14:29:37Z</time>
      </trkpt>
      <trkpt lat="36.370330" lon="-120.335410">
        <ele>161.748</ele>
        <time>2018-12-28T14:29:57Z</time>
      </trkpt>
      <trkpt lat="36.370610" lon="-120.335650">
        <ele>161.652</ele>
        <time>2018-12-28T14:30:17Z</time>
      </trkpt>
      <trkpt lat="36.374130" lon="-120.338810">
        <ele>161.475</ele>
        <time>2018-12-28T14:30:37Z</time>
      </trkpt>
      <trkpt lat="36.375150" lon="-120.339710">
        <ele>161.483</ele>
        <time>2018-12-28T14:30:57Z</time>
      </trkpt>
      <trkpt lat="36.375710" lon="-120.340220">
        <ele>161.425</ele>
        <time>2018-12-28T14:31:17Z</time>
      </trkpt>
      <trkpt lat="36.376300" lon="-120.340740">
        <ele>160.917</ele>
        <time>2018-12-28T14:31:37Z</time>
      </trkpt>
      <trkpt lat="36.376490" lon="-120.340900">
        <ele>160.808</ele>
        <time>2018-12-28T14:31:57Z</time>
      </trkpt>
      <trkpt lat="36.376760" lon="-120.341160">
        <ele>160.751</ele>
        <time>2018-12-28T14:32:17Z</time>
      </trkpt>
      <trkpt lat="36.378110" lon="-120.342360">
        <ele>160.119</ele>
        <time>2018-12-28T14:32:37Z</time>
      </trkpt>
      <trkpt lat="36.379430" lon="-120.343540">
        <ele>159.394</ele>
        <time>2018-12-28T14:32:57Z</time>
      </trkpt>
      <trkpt lat="36.379490" lon="-120.343590">
        <ele>159.233</ele>
        <time>2018-12-28T14:33:17Z</time>
      </trkpt>
      <trkpt lat="36.380770" lon="-120.344740">
        <ele>158.477</ele>
        <time>2018-12-28T14:33:37Z</time>
      </trkpt>
      <trkpt lat="36.382050" lon="-120.345880">
        <ele>157.560</ele>
        <time>2018-12-28T14:33:57Z</time>
      </trkpt>
      <trkpt lat="36.383710" lon="-120.347370">
        <ele>155.964</ele>
        <time>2018-12-28T14:34:17Z</time>
      </trkpt>
      <trkpt lat="36.384240" lon="-120.347840">
        <ele>155.017</ele>
        <time>2018-12-28T14:34:37Z</time>
      </trkpt>
      <trkpt lat="36.384770" lon="-120.348330">
        <ele>154.398</ele>
        <time>2018-12-28T14:34:57Z</time>
      </trkpt>
      <trkpt lat="36.384970" lon="-120.348490">
        <ele>154.015</ele>
        <time>2018-12-28T14:35:17Z</time>
      </trkpt>
      <trkpt lat="36.385880" lon="-120.349310">
        <ele>152.826</ele>
        <time>2018-12-28T14:35:37Z</time>
      </trkpt>
      <trkpt lat="36.387150" lon="-120.350450">
        <ele>151.508</ele>
        <time>2018-12-28T14:35:57Z</time>
      </trkpt>
      <trkpt lat="36.387810" lon="-120.351030">
        <ele>150.282</ele>
        <time>2018-12-28T14:36:17Z</time>
      </trkpt>
      <trkpt lat="36.388520" lon="-120.351670">
        <ele>150.320</ele>
        <time>2018-12-28T14:36:37Z</time>
      </trkpt>
      <trkpt lat="36.391400" lon="-120.354250">
        <ele>150.115</ele>
        <time>2018-12-28T14:36:57Z</time>
      </trkpt>
      <trkpt lat="36.394600" lon="-120.357110">
        <ele>150.494</ele>
        <time>2018-12-28T14:37:17Z</time>
      </trkpt>
      <trkpt lat="36.395930" lon="-120.358300">
        <ele>151.148</ele>
        <time>2018-12-28T14:37:37Z</time>
      </trkpt>
      <trkpt lat="36.397020" lon="-120.359270">
        <ele>151.831</ele>
        <time>2018-12-28T14:37:57Z</time>
      </trkpt>
      <trkpt lat="36.398190" lon="-120.360320">
        <ele>152.035</ele>
        <time>2018-12-28T14:38:17Z</time>
      </trkpt>
      <trkpt lat="36.398510" lon="-120.360610">
        <ele>150.378</ele>
        <time>2018-12-28T14:38:37Z</time>
      </trkpt>
      <trkpt lat="36.398580" lon="-120.360670">
        <ele>150.542</ele>
        <time>2018-12-28T14:38:57Z</time>
      </trkpt>
      <trkpt lat="36.398830" lon="-120.360900">
        <ele>151.222</ele>
        <time>2018-12-28T14:39:17Z</time>
      </trkpt>
      <trkpt lat="36.398890" lon="-120.360950">
        <ele>151.214</ele>
        <time>2018-12-28T14:39:37Z</time>
      </trkpt>
      <trkpt lat="36.399200" lon="-120.361220">
        <ele>151.608</ele>
        <time>2018-12-28T14:39:57Z</time>
      </trkpt>
      <trkpt lat="36.401590" lon="-120.363360">
        <ele>152.447</ele>
        <time>2018-12-28T14:40:17Z</time>
      </trkpt>
      <trkpt lat="36.406630" lon="-120.367870">
        <ele>153.455</ele>
        <time>2018-12-28T14:40:37Z</time>
      </trkpt>
      <trkpt lat="36.407910" lon="-120.369010">
        <ele>153.850</ele>
        <time>2018-12-28T14:40:57Z</time>
      </trkpt>
      <trkpt lat="36.408720" lon="-120.369730">
        <ele>153.739</ele>
        <time>2018-12-28T14:41:17Z</time>
      </trkpt>
      <trkpt lat="36.409570" lon="-120.370500">
        <ele>153.443</ele>
        <time>2018-12-28T14:41:37Z</time>
      </trkpt>
      <trkpt lat="36.409870" lon="-120.370760">
        <ele>153.226</ele>
        <time>2018-12-28T14:41:57Z</time>
      </trkpt>
      <trkpt lat="36.410060" lon="-120.370950">
        <ele>153.110</ele>
        <time>2018-12-28T14:42:17Z</time>
      </trkpt>
      <trkpt lat="36.410980" lon="-120.371790">
        <ele>152.643</ele>
        <time>2018-12-28T14:42:37Z</time>
      </trkpt>
      <trkpt lat="36.411260" lon="-120.372030">
        <ele>152.463</ele>
        <time>2018-12-28T14:42:57Z</time>
      </trkpt>
      <trkpt lat="36.412530" lon="-120.373160">
        <ele>152.144</ele>
        <time>2018-12-28T14:43:17Z</time>
      </trkpt>
      <trkpt lat="36.413470" lon="-120.374010">
        <ele>151.318</ele>
        <time>2018-12-28T14:43:37Z</time>
      </trkpt>
      <trkpt lat="36.414690" lon="-120.375110">
        <ele>151.208</ele>
        <time>2018-12-28T14:43:57Z</time>
      </trkpt>
      <trkpt lat="36.415170" lon="-120.375530">
        <ele>151.199</ele>
        <time>2018-12-28T14:44:17Z</time>
      </trkpt>
      <trkpt lat="36.415220" lon="-120.375570">
        <ele>151.137</ele>
        <time>2018-12-28T14:44:37Z</time>
      </trkpt>
      <trkpt lat="36.416510" lon="-120.376730">
        <ele>150.852</ele>
        <time>2018-12-28T14:44:57Z</time>
      </trkpt>
      <trkpt lat="36.417340" lon="-120.377470">
        <ele>150.651</ele>
        <time>2018-12-28T14:45:17Z</time>
      </trkpt>
      <trkpt lat="36.417890" lon="-120.377970">
        <ele>149.655</ele>
        <time>2018-12-28T14:45:37Z</time>
      </trkpt>
      <trkpt lat="36.418220" lon="-120.378250">
        <ele>146.558</ele>
        <time>2018-12-28T14:45:57Z</time>
      </trkpt>
      <trkpt lat="36.418580" lon="-120.378570">
        <ele>146.292</ele>
        <time>2018-12-28T14:46:17Z</time>
      </trkpt>
      <trkpt lat="36.419390" lon="-120.379290">
        <ele>147.435</ele>
        <time>2018-12-28T14:46:37Z</time>
      </trkpt>
      <trkpt lat="36.419830" lon="-120.379700">
        <ele>149.872</ele>
        <time>2018-12-28T14:46:57Z</time>
      </trkpt>
      <trkpt lat="36.422500" lon="-120.382090">
        <ele>149.913</ele>
        <time>2018-12-28T14:47:17Z</time>
      </trkpt>
      <trkpt lat="36.428450" lon="-120.387410">
        <ele>146.114</ele>
        <time>2018-12-28T14:47:37Z</time>
      </trkpt>
      <trkpt lat="36.429780" lon="-120.388590">
        <ele>145.508</ele>
        <time>2018-12-28T14:47:57Z</time>
      </trkpt>
      <trkpt lat="36.429970" lon="-120.388770">
        <ele>145.430</ele>
        <time>2018-12-28T14:48:17Z</time>
      </trkpt>
      <trkpt lat="36.430350" lon="-120.389110">
        <ele>145.218</ele>
        <time>2018-12-28T14:48:37Z</time>
      </trkpt>
      <trkpt lat="36.430740" lon="-120.389450">
        <ele>145.073</ele>
        <time>2018-12-28T14:48:57Z</time>
      </trkpt>
      <trkpt lat="36.430990" lon="-120.389690">
        <ele>144.932</ele>
        <time>2018-12-28T14:49:17Z</time>
      </trkpt>
      <trkpt lat="36.431570" lon="-120.390200">
        <ele>144.686</ele>
        <time>2018-12-28T14:49:37Z</time>
      </trkpt>
      <trkpt lat="36.431960" lon="-120.390550">
        <ele>144.399</ele>
        <time>2018-12-28T14:49:57Z</time>
      </trkpt>
      <trkpt lat="36.432820" lon="-120.391330">
        <ele>143.833</ele>
        <time>2018-12-28T14:50:17Z</time>
      </trkpt>
      <trkpt lat="36.433450" lon="-120.391890">
        <ele>143.746</ele>
        <time>2018-12-28T14:50:37Z</time>
      </trkpt>
      <trkpt lat="36.433670" lon="-120.392090">
        <ele>143.668</ele>
        <time>2018-12-28T14:50:57Z</time>
      </trkpt>
      <trkpt lat="36.433850" lon="-120.392250">
        <ele>143.642</ele>
        <time>2018-12-28T14:51:17Z</time>
      </trkpt>
      <trkpt lat="36.433960" lon="-120.392340">
        <ele>143.626</ele>
        <time>2018-12-28T14:51:37Z</time>
      </trkpt>
      <trkpt lat="36.438330" lon="-120.396260">
        <ele>142.408</ele>
        <time>2018-12-28T14:51:57Z</time>
      </trkpt>
      <trkpt lat="36.438440" lon="-120.396360">
        <ele>142.429</ele>
        <time>2018-12-28T14:52:17Z</time>
      </trkpt>
      <trkpt lat="36.438740" lon="-120.396640">
        <ele>142.327</ele>
        <time>2018-12-28T14:52:37Z</time>
      </trkpt>
      <trkpt lat="36.438770" lon="-120.396660">
        <ele>142.362</ele>
        <time>2018-12-28T14:52:57Z</time>
      </trkpt>
      <trkpt lat="36.439720" lon="-120.397500">
        <ele>142.171</ele>
        <time>2018-12-28T14:53:17Z</time>
      </trkpt>
      <trkpt lat="36.440660" lon="-120.398340">
        <ele>143.825</ele>
        <time>2018-12-28T14:53:37Z</time>
      </trkpt>
      <trkpt lat="36.441670" lon="-120.399240">
        <ele>144.878</ele>
        <time>2018-12-28T14:53:57Z</time>
      </trkpt>
      <trkpt lat="36.442240" lon="-120.399750">
        <ele>145.252</ele>
        <time>2018-12-28T14:54:17Z</time>
      </trkpt>
      <trkpt lat="36.442710" lon="-120.400180">
        <ele>145.595</ele>
        <time>2018-12-28T14:54:37Z</time>
      </trkpt>
      <trkpt lat="36.443120" lon="-120.400540">
        <ele>145.716</ele>
        <time>2018-12-28T14:54:57Z</time>
      </trkpt>
      <trkpt lat="36.443720" lon="-120.401080">
        <ele>146.276</ele>
        <time>2018-12-28T14:55:17Z</time>
      </trkpt>
      <trkpt lat="36.444350" lon="-120.401650">
        <ele>146.813</ele>
        <time>2018-12-28T14:55:37Z</time>
      </trkpt>
      <trkpt lat="36.444880" lon="-120.402120">
        <ele>147.208</ele>
        <time>2018-12-28T14:55:57Z</time>
      </trkpt>
      <trkpt lat="36.445490" lon="-120.402680">
        <ele>147.364</ele>
        <time>2018-12-28T14:56:17Z</time>
      </trkpt>
      <trkpt lat="36.446050" lon="-120.403180">
        <ele>148.042</ele>
        <time>2018-12-28T14:56:37Z</time>
      </trkpt>
      <trkpt lat="36.446470" lon="-120.403560">
        <ele>148.617</ele>
        <time>2018-12-28T14:56:57Z</time>
      </trkpt>
      <trkpt lat="36.447440" lon="-120.404420">
        <ele>149.736</ele>
        <time>2018-12-28T14:57:17Z</time>
      </trkpt>
      <trkpt lat="36.448730" lon="-120.405580">
        <ele>150.620</ele>
        <time>2018-12-28T14:57:37Z</time>
      </trkpt>
      <trkpt lat="36.449410" lon="-120.406190">
        <ele>150.993</ele>
        <time>2018-12-28T14:57:57Z</time>
      </trkpt>
      <trkpt lat="36.451380" lon="-120.407970">
        <ele>150.977</ele>
        <time>2018-12-28T14:58:17Z</time>
      </trkpt>
      <trkpt lat="36.453090" lon="-120.409590">
        <ele>150.640</ele>
        <time>2018-12-28T14:58:37Z</time>
      </trkpt>
      <trkpt lat="36.454410" lon="-120.410840">
        <ele>151.057</ele>
        <time>2018-12-28T14:58:57Z</time>
      </trkpt>
      <trkpt lat="36.454570" lon="-120.410990">
        <ele>151.000</ele>
        <time>2018-12-28T14:59:17Z</time>
      </trkpt>
      <trkpt lat="36.454920" lon="-120.411330">
        <ele>151.320</ele>
        <time>2018-12-28T14:59:37Z</time>
      </trkpt>
      <trkpt lat="36.456070" lon="-120.412430">
        <ele>153.108</ele>
        <time>2018-12-28T14:59:57Z</time>
      </trkpt>
      <trkpt lat="36.456560" lon="-120.412900">
        <ele>154.018</ele>
        <time>2018-12-28T15:00:17Z</time>
      </trkpt>
      <trkpt lat="36.457390" lon="-120.413700">
        <ele>155.646</ele>
        <time>2018-12-28T15:00:37Z</time>
      </trkpt>
      <trkpt lat="36.457660" lon="-120.413950">
        <ele>156.191</ele>
        <time>2018-12-28T15:00:57Z</time>
      </trkpt>
      <trkpt lat="36.458610" lon="-120.414860">
        <ele>158.120</ele>
        <time>2018-12-28T15:01:17Z</time>
      </trkpt>
      <trkpt lat="36.459150" lon="-120.415370">
        <ele>159.164</ele>
        <time>2018-12-28T15:01:37Z</time>
      </trkpt>
      <trkpt lat="36.459800" lon="-120.415990">
        <ele>160.557</ele>
        <time>2018-12-28T15:01:57Z</time>
      </trkpt>
      <trkpt lat="36.460100" lon="-120.416280">
        <ele>161.241</ele>
        <time>2018-12-28T15:02:17Z</time>
      </trkpt>
      <trkpt lat="36.460730" lon="-120.416880">
        <ele>162.434</ele>
        <time>2018-12-28T15:02:37Z</time>
      </trkpt>
      <trkpt lat="36.461600" lon="-120.417710">
        <ele>164.161</ele>
        <time>2018-12-28T15:02:57Z</time>
      </trkpt>
      <trkpt lat="36.462490" lon="-120.418570">
        <ele>165.921</ele>
        <time>2018-12-28T15:03:17Z</time>
      </trkpt>
      <trkpt lat="36.462890" lon="-120.418950">
        <ele>166.713</ele>
        <time>2018-12-28T15:03:37Z</time>
      </trkpt>
      <trkpt lat="36.463020" lon="-120.419070">
        <ele>166.908</ele>
        <time>2018-12-28T15:03:57Z</time>
      </trkpt>
      <trkpt lat="36.463470" lon="-120.419500">
        <ele>167.999</ele>
        <time>2018-12-28T15:04:17Z</time>
      </trkpt>
      <trkpt lat="36.464300" lon="-120.420290">
        <ele>169.197</ele>
        <time>2018-12-28T15:04:37Z</time>
      </trkpt>
      <trkpt lat="36.465320" lon="-120.421260">
        <ele>169.262</ele>
        <time>2018-12-28T15:04:57Z</time>
      </trkpt>
      <trkpt lat="36.465870" lon="-120.421790">
        <ele>169.051</ele>
        <time>2018-12-28T15:05:17Z</time>
      </trkpt>
      <trkpt lat="36.466600" lon="-120.422490">
        <ele>169.355</ele>
        <time>2018-12-28T15:05:37Z</time>
      </trkpt>
      <trkpt lat="36.466810" lon="-120.422690">
        <ele>169.538</ele>
        <time>2018-12-28T15:05:57Z</time>
      </trkpt>
      <trkpt lat="36.467520" lon="-120.423370">
        <ele>170.532</ele>
        <time>2018-12-28T15:06:17Z</time>
      </trkpt>
      <trkpt lat="36.468330" lon="-120.424140">
        <ele>172.185</ele>
        <time>2018-12-28T15:06:37Z</time>
      </trkpt>
      <trkpt lat="36.469140" lon="-120.424910">
        <ele>174.227</ele>
        <time>2018-12-28T15:06:57Z</time>
      </trkpt>
      <trkpt lat="36.469430" lon="-120.425190">
        <ele>174.668</ele>
        <time>2018-12-28T15:07:17Z</time>
      </trkpt>
      <trkpt lat="36.470160" lon="-120.425880">
        <ele>175.314</ele>
        <time>2018-12-28T15:07:37Z</time>
      </trkpt>
      <trkpt lat="36.470810" lon="-120.426500">
        <ele>175.208</ele>
        <time>2018-12-28T15:07:57Z</time>
      </trkpt>
      <trkpt lat="36.471520" lon="-120.427190">
        <ele>176.745</ele>
        <time>2018-12-28T15:08:17Z</time>
      </trkpt>
      <trkpt lat="36.472480" lon="-120.428090">
        <ele>179.953</ele>
        <time>2018-12-28T15:08:37Z</time>
      </trkpt>
      <trkpt lat="36.473370" lon="-120.428910">
        <ele>181.688</ele>
        <time>2018-12-28T15:08:57Z</time>
      </trkpt>
      <trkpt lat="36.473730" lon="-120.429230">
        <ele>182.227</ele>
        <time>2018-12-28T15:09:17Z</time>
      </trkpt>
      <trkpt lat="36.474580" lon="-120.429990">
        <ele>183.071</ele>
        <time>2018-12-28T15:09:37Z</time>
      </trkpt>
      <trkpt lat="36.475010" lon="-120.430350">
        <ele>183.644</ele>
        <time>2018-12-28T15:09:57Z</time>
      </trkpt>
      <trkpt lat="36.475440" lon="-120.430720">
        <ele>183.968</ele>
        <time>2018-12-28T15:10:17Z</time>
      </trkpt>
      <trkpt lat="36.475660" lon="-120.430900">
        <ele>184.521</ele>
        <time>2018-12-28T15:10:37Z</time>
      </trkpt>
      <trkpt lat="36.476200" lon="-120.431360">
        <ele>186.463</ele>
        <time>2018-12-28T15:10:57Z</time>
      </trkpt>
      <trkpt lat="36.476840" lon="-120.431910">
        <ele>187.244</ele>
        <time>2018-12-28T15:11:17Z</time>
      </trkpt>
      <trkpt lat="36.477400" lon="-120.432410">
        <ele>186.618</ele>
        <time>2018-12-28T15:11:37Z</time>
      </trkpt>
      <trkpt lat="36.477910" lon="-120.432840">
        <ele>188.108</ele>
        <time>2018-12-28T15:11:57Z</time>
      </trkpt>
      <trkpt lat="36.478060" lon="-120.432970">
        <ele>187.419</ele>
        <time>2018-12-28T15:12:17Z</time>
      </trkpt>
      <trkpt lat="36.478120" lon="-120.433030">
        <ele>186.657</ele>
        <time>2018-12-28T15:12:37Z</time>
      </trkpt>
      <trkpt lat="36.478180" lon="-120.433090">
        <ele>185.612</ele>
        <time>2018-12-28T15:12:57Z</time>
      </trkpt>
      <trkpt lat="36.479130" lon="-120.433960">
        <ele>182.971</ele>
        <time>2018-12-28T15:13:17Z</time>
      </trkpt>
      <trkpt lat="36.479440" lon="-120.434200">
        <ele>184.145</ele>
        <time>2018-12-28T15:13:37Z</time>
      </trkpt>
      <trkpt lat="36.480350" lon="-120.434960">
        <ele>186.818</ele>
        <time>2018-12-28T15:13:57Z</time>
      </trkpt>
      <trkpt lat="36.480660" lon="-120.435230">
        <ele>187.342</ele>
        <time>2018-12-28T15:14:17Z</time>
      </trkpt>
      <trkpt lat="36.481480" lon="-120.435930">
        <ele>189.265</ele>
        <time>2018-12-28T15:14:37Z</time>
      </trkpt>
      <trkpt lat="36.482100" lon="-120.436450">
        <ele>190.524</ele>
        <time>2018-12-28T15:14:57Z</time>
      </trkpt>
      <trkpt lat="36.482580" lon="-120.436870">
        <ele>192.604</ele>
        <time>2018-12-28T15:15:17Z</time>
      </trkpt>
      <trkpt lat="36.483110" lon="-120.437300">
        <ele>194.514</ele>
        <time>2018-12-28T15:15:37Z</time>
      </trkpt>
      <trkpt lat="36.483460" lon="-120.437610">
        <ele>194.908</ele>
        <time>2018-12-28T15:15:57Z</time>
      </trkpt>
      <trkpt lat="36.483680" lon="-120.437800">
        <ele>194.295</ele>
        <time>2018-12-28T15:16:17Z</time>
      </trkpt>
      <trkpt lat="36.484400" lon="-120.438410">
        <ele>196.843</ele>
        <time>2018-12-28T15:16:37Z</time>
      </trkpt>
      <trkpt lat="36.484850" lon="-120.438820">
        <ele>193.688</ele>
        <time>2018-12-28T15:16:57Z</time>
      </trkpt>
      <trkpt lat="36.485270" lon="-120.439190">
        <ele>192.957</ele>
        <time>2018-12-28T15:17:17Z</time>
      </trkpt>
      <trkpt lat="36.485660" lon="-120.439500">
        <ele>194.931</ele>
        <time>2018-12-28T15:17:37Z</time>
      </trkpt>
      <trkpt lat="36.485870" lon="-120.439680">
        <ele>195.964</ele>
        <time>2018-12-28T15:17:57Z</time>
      </trkpt>
      <trkpt lat="36.486020" lon="-120.439800">
        <ele>195.638</ele>
        <time>2018-12-28T15:18:17Z</time>
      </trkpt>
      <trkpt lat="36.486050" lon="-120.439830">
        <ele>195.471</ele>
        <time>2018-12-28T15:18:37Z</time>
      </trkpt>
      <trkpt lat="36.486270" lon="-120.440020">
        <ele>193.274</ele>
        <time>2018-12-28T15:18:57Z</time>
      </trkpt>
      <trkpt lat="36.486730" lon="-120.440480">
        <ele>194.856</ele>
        <time>2018-12-28T15:19:17Z</time>
      </trkpt>
      <trkpt lat="36.487370" lon="-120.441030">
        <ele>195.521</ele>
        <time>2018-12-28T15:19:37Z</time>
      </trkpt>
      <trkpt lat="36.489860" lon="-120.443160">
        <ele>192.108</ele>
        <time>2018-12-28T15:19:57Z</time>
      </trkpt>
      <trkpt lat="36.490400" lon="-120.443590">
        <ele>186.310</ele>
        <time>2018-12-28T15:20:17Z</time>
      </trkpt>
      <trkpt lat="36.490960" lon="-120.444090">
        <ele>188.098</ele>
        <time>2018-12-28T15:20:37Z</time>
      </trkpt>
      <trkpt lat="36.491480" lon="-120.444530">
        <ele>187.413</ele>
        <time>2018-12-28T15:20:57Z</time>
      </trkpt>
      <trkpt lat="36.492020" lon="-120.445020">
        <ele>188.322</ele>
        <time>2018-12-28T15:21:17Z</time>
      </trkpt>
      <trkpt lat="36.492780" lon="-120.445690">
        <ele>183.786</ele>
        <time>2018-12-28T15:21:37Z</time>
      </trkpt>
      <trkpt lat="36.492970" lon="-120.445870">
        <ele>183.339</ele>
        <time>2018-12-28T15:21:57Z</time>
      </trkpt>
      <trkpt lat="36.493070" lon="-120.445980">
        <ele>185.133</ele>
        <time>2018-12-28T15:22:17Z</time>
      </trkpt>
      <trkpt lat="36.493280" lon="-120.446190">
        <ele>188.236</ele>
        <time>2018-12-28T15:22:37Z</time>
      </trkpt>
      <trkpt lat="36.493800" lon="-120.446690">
        <ele>190.443</ele>
        <time>2018-12-28T15:22:57Z</time>
      </trkpt>
      <trkpt lat="36.494410" lon="-120.447280">
        <ele>188.464</ele>
        <time>2018-12-28T15:23:17Z</time>
      </trkpt>
      <trkpt lat="36.494930" lon="-120.447800">
        <ele>188.710</ele>
        <time>2018-12-28T15:23:37Z</time>
      </trkpt>
      <trkpt lat="36.496460" lon="-120.449390">
        <ele>192.308</ele>
        <time>2018-12-28T15:23:57Z</time>
      </trkpt>
      <trkpt lat="36.496960" lon="-120.449900">
        <ele>191.997</ele>
        <time>2018-12-28T15:24:17Z</time>
      </trkpt>
      <trkpt lat="36.497570" lon="-120.450480">
        <ele>183.625</ele>
        <time>2018-12-28T15:24:37Z</time>
      </trkpt>
      <trkpt lat="36.497860" lon="-120.450790">
        <ele>186.860</ele>
        <time>2018-12-28T15:24:57Z</time>
      </trkpt>
      <trkpt lat="36.498410" lon="-120.451390">
        <ele>188.899</ele>
        <time>2018-12-28T15:25:17Z</time>
      </trkpt>
      <trkpt lat="36.499290" lon="-120.452290">
        <ele>188.243</ele>
        <time>2018-12-28T15:25:37Z</time>
      </trkpt>
      <trkpt lat="36.500410" lon="-120.453460">
        <ele>189.316</ele>
        <time>2018-12-28T15:25:57Z</time>
      </trkpt>
      <trkpt lat="36.501170" lon="-120.454230">
        <ele>188.890</ele>
        <time>2018-12-28T15:26:17Z</time>
      </trkpt>
      <trkpt lat="36.502170" lon="-120.455260">
        <ele>190.323</ele>
        <time>2018-12-28T15:26:37Z</time>
      </trkpt>
      <trkpt lat="36.502790" lon="-120.455910">
        <ele>190.693</ele>
        <time>2018-12-28T15:26:57Z</time>
      </trkpt>
      <trkpt lat="36.503560" lon="-120.456690">
        <ele>191.865</ele>
        <time>2018-12-28T15:27:17Z</time>
      </trkpt>
      <trkpt lat="36.504000" lon="-120.457160">
        <ele>192.821</ele>
        <time>2018-12-28T15:27:37Z</time>
      </trkpt>
      <trkpt lat="36.504510" lon="-120.457680">
        <ele>194.108</ele>
        <time>2018-12-28T15:27:57Z</time>
      </trkpt>
      <trkpt lat="36.504800" lon="-120.457980">
        <ele>194.642</ele>
        <time>2018-12-28T15:28:17Z</time>
      </trkpt>
      <trkpt lat="36.505730" lon="-120.458930">
        <ele>196.150</ele>
        <time>2018-12-28T15:28:37Z</time>
      </trkpt>
      <trkpt lat="36.506200" lon="-120.459420">
        <ele>193.465</ele>
        <time>2018-12-28T15:28:57Z</time>
      </trkpt>
      <trkpt lat="36.506430" lon="-120.459650">
        <ele>193.794</ele>
        <time>2018-12-28T15:29:17Z</time>
      </trkpt>
      <trkpt lat="36.507430" lon="-120.460690">
        <ele>196.058</ele>
        <time>2018-12-28T15:29:37Z</time>
      </trkpt>
      <trkpt lat="36.508990" lon="-120.462300">
        <ele>195.361</ele>
        <time>2018-12-28T15:29:57Z</time>
      </trkpt>
      <trkpt lat="36.509250" lon="-120.462560">
        <ele>195.955</ele>
        <time>2018-12-28T15:30:17Z</time>
      </trkpt>
      <trkpt lat="36.510060" lon="-120.463400">
        <ele>197.038</ele>
        <time>2018-12-28T15:30:37Z</time>
      </trkpt>
      <trkpt lat="36.510650" lon="-120.464010">
        <ele>195.968</ele>
        <time>2018-12-28T15:30:57Z</time>
      </trkpt>
      <trkpt lat="36.511720" lon="-120.465110">
        <ele>197.942</ele>
        <time>2018-12-28T15:31:17Z</time>
      </trkpt>
      <trkpt lat="36.512780" lon="-120.466190">
        <ele>196.126</ele>
        <time>2018-12-28T15:31:37Z</time>
      </trkpt>
      <trkpt lat="36.513810" lon="-120.467250">
        <ele>193.708</ele>
        <time>2018-12-28T15:31:57Z</time>
      </trkpt>
      <trkpt lat="36.514190" lon="-120.467650">
        <ele>195.329</ele>
        <time>2018-12-28T15:32:17Z</time>
      </trkpt>
      <trkpt lat="36.514900" lon="-120.468380">
        <ele>197.267</ele>
        <time>2018-12-28T15:32:37Z</time>
      </trkpt>
      <trkpt lat="36.515840" lon="-120.469350">
        <ele>197.082</ele>
        <time>2018-12-28T15:32:57Z</time>
      </trkpt>
      <trkpt lat="36.516910" lon="-120.470460">
        <ele>191.071</ele>
        <time>2018-12-28T15:33:17Z</time>
      </trkpt>
      <trkpt lat="36.517190" lon="-120.470740">
        <ele>195.785</ele>
        <time>2018-12-28T15:33:37Z</time>
      </trkpt>
      <trkpt lat="36.518290" lon="-120.471880">
        <ele>186.488</ele>
        <time>2018-12-28T15:33:57Z</time>
      </trkpt>
      <trkpt lat="36.519390" lon="-120.473010">
        <ele>192.182</ele>
        <time>2018-12-28T15:34:17Z</time>
      </trkpt>
      <trkpt lat="36.520400" lon="-120.474100">
        <ele>195.245</ele>
        <time>2018-12-28T15:34:37Z</time>
      </trkpt>
      <trkpt lat="36.521250" lon="-120.475110">
        <ele>193.168</ele>
        <time>2018-12-28T15:34:57Z</time>
      </trkpt>
      <trkpt lat="36.521630" lon="-120.475600">
        <ele>185.842</ele>
        <time>2018-12-28T15:35:17Z</time>
      </trkpt>
      <trkpt lat="36.522350" lon="-120.476550">
        <ele>189.926</ele>
        <time>2018-12-28T15:35:37Z</time>
      </trkpt>
      <trkpt lat="36.523030" lon="-120.477460">
        <ele>189.208</ele>
        <time>2018-12-28T15:35:57Z</time>
      </trkpt>
      <trkpt lat="36.523840" lon="-120.478520">
        <ele>184.349</ele>
        <time>2018-12-28T15:36:17Z</time>
      </trkpt>
      <trkpt lat="36.524390" lon="-120.479250">
        <ele>183.197</ele>
        <time>2018-12-28T15:36:37Z</time>
      </trkpt>
      <trkpt lat="36.525390" lon="-120.480580">
        <ele>183.862</ele>
        <time>2018-12-28T15:36:57Z</time>
      </trkpt>
      <trkpt lat="36.526280" lon="-120.481760">
        <ele>178.721</ele>
        <time>2018-12-28T15:37:17Z</time>
      </trkpt>
      <trkpt lat="36.526930" lon="-120.482600">
        <ele>182.575</ele>
        <time>2018-12-28T15:37:37Z</time>
      </trkpt>
      <trkpt lat="36.527490" lon="-120.483340">
        <ele>181.188</ele>
        <time>2018-12-28T15:37:57Z</time>
      </trkpt>
      <trkpt lat="36.527850" lon="-120.483820">
        <ele>184.052</ele>
        <time>2018-12-28T15:38:17Z</time>
      </trkpt>
      <trkpt lat="36.528510" lon="-120.484680">
        <ele>186.595</ele>
        <time>2018-12-28T15:38:37Z</time>
      </trkpt>
      <trkpt lat="36.528710" lon="-120.484930">
        <ele>186.147</ele>
        <time>2018-12-28T15:38:57Z</time>
      </trkpt>
      <trkpt lat="36.529620" lon="-120.486160">
        <ele>177.929</ele>
        <time>2018-12-28T15:39:17Z</time>
      </trkpt>
      <trkpt lat="36.530060" lon="-120.486750">
        <ele>177.221</ele>
        <time>2018-12-28T15:39:37Z</time>
      </trkpt>
      <trkpt lat="36.530880" lon="-120.487830">
        <ele>177.208</ele>
        <time>2018-12-28T15:39:57Z</time>
      </trkpt>
      <trkpt lat="36.531320" lon="-120.488410">
        <ele>178.477</ele>
        <time>2018-12-28T15:40:17Z</time>
      </trkpt>
      <trkpt lat="36.531880" lon="-120.489150">
        <ele>180.665</ele>
        <time>2018-12-28T15:40:37Z</time>
      </trkpt>
      <trkpt lat="36.532370" lon="-120.489780">
        <ele>182.170</ele>
        <time>2018-12-28T15:40:57Z</time>
      </trkpt>
      <trkpt lat="36.532760" lon="-120.490310">
        <ele>182.259</ele>
        <time>2018-12-28T15:41:17Z</time>
      </trkpt>
      <trkpt lat="36.532920" lon="-120.490530">
        <ele>181.573</ele>
        <time>2018-12-28T15:41:37Z</time>
      </trkpt>
      <trkpt lat="36.533150" lon="-120.490820">
        <ele>182.056</ele>
        <time>2018-12-28T15:41:57Z</time>
      </trkpt>
      <trkpt lat="36.533450" lon="-120.491220">
        <ele>184.420</ele>
        <time>2018-12-28T15:42:17Z</time>
      </trkpt>
      <trkpt lat="36.533530" lon="-120.491330">
        <ele>184.843</ele>
        <time>2018-12-28T15:42:37Z</time>
      </trkpt>
      <trkpt lat="36.534320" lon="-120.492370">
        <ele>186.648</ele>
        <time>2018-12-28T15:42:57Z</time>
      </trkpt>
      <trkpt lat="36.535530" lon="-120.493980">
        <ele>183.361</ele>
        <time>2018-12-28T15:43:17Z</time>
      </trkpt>
      <trkpt lat="36.535840" lon="-120.494390">
        <ele>185.417</ele>
        <time>2018-12-28T15:43:37Z</time>
      </trkpt>
      <trkpt lat="36.536280" lon="-120.494970">
        <ele>184.408</ele>
        <time>2018-12-28T15:43:57Z</time>
      </trkpt>
      <trkpt lat="36.537720" lon="-120.496890">
        <ele>178.337</ele>
        <time>2018-12-28T15:44:17Z</time>
      </trkpt>
      <trkpt lat="36.538950" lon="-120.498480">
        <ele>178.545</ele>
        <time>2018-12-28T15:44:37Z</time>
      </trkpt>
      <trkpt lat="36.539600" lon="-120.499360">
        <ele>174.260</ele>
        <time>2018-12-28T15:44:57Z</time>
      </trkpt>
      <trkpt lat="36.540680" lon="-120.500800">
        <ele>173.049</ele>
        <time>2018-12-28T15:45:17Z</time>
      </trkpt>
      <trkpt lat="36.542520" lon="-120.503230">
        <ele>173.773</ele>
        <time>2018-12-28T15:45:37Z</time>
      </trkpt>
      <trkpt lat="36.543090" lon="-120.503990">
        <ele>174.256</ele>
        <time>2018-12-28T15:45:57Z</time>
      </trkpt>
      <trkpt lat="36.543960" lon="-120.505130">
        <ele>174.760</ele>
        <time>2018-12-28T15:46:17Z</time>
      </trkpt>
      <trkpt lat="36.544930" lon="-120.506410">
        <ele>175.493</ele>
        <time>2018-12-28T15:46:37Z</time>
      </trkpt>
      <trkpt lat="36.547250" lon="-120.509480">
        <ele>173.292</ele>
        <time>2018-12-28T15:46:57Z</time>
      </trkpt>
      <trkpt lat="36.548280" lon="-120.510840">
        <ele>172.273</ele>
        <time>2018-12-28T15:47:17Z</time>
      </trkpt>
      <trkpt lat="36.549380" lon="-120.512310">
        <ele>169.920</ele>
        <time>2018-12-28T15:47:37Z</time>
      </trkpt>
      <trkpt lat="36.549690" lon="-120.512710">
        <ele>169.608</ele>
        <time>2018-12-28T15:47:57Z</time>
      </trkpt>
      <trkpt lat="36.550880" lon="-120.514290">
        <ele>172.282</ele>
        <time>2018-12-28T15:48:17Z</time>
      </trkpt>
      <trkpt lat="36.551340" lon="-120.514900">
        <ele>172.630</ele>
        <time>2018-12-28T15:48:37Z</time>
      </trkpt>
      <trkpt lat="36.552940" lon="-120.517010">
        <ele>173.685</ele>
        <time>2018-12-28T15:48:57Z</time>
      </trkpt>
      <trkpt lat="36.553780" lon="-120.518130">
        <ele>172.374</ele>
        <time>2018-12-28T15:49:17Z</time>
      </trkpt>
      <trkpt lat="36.553790" lon="-120.518140">
        <ele>172.268</ele>
        <time>2018-12-28T15:49:37Z</time>
      </trkpt>
      <trkpt lat="36.553900" lon="-120.518280">
        <ele>171.921</ele>
        <time>2018-12-28T15:49:57Z</time>
      </trkpt>
      <trkpt lat="36.556340" lon="-120.521500">
        <ele>167.845</ele>
        <time>2018-12-28T15:50:17Z</time>
      </trkpt>
      <trkpt lat="36.561010" lon="-120.527670">
        <ele>174.188</ele>
        <time>2018-12-28T15:50:37Z</time>
      </trkpt>
      <trkpt lat="36.561140" lon="-120.527850">
        <ele>174.351</ele>
        <time>2018-12-28T15:50:57Z</time>
      </trkpt>
      <trkpt lat="36.564090" lon="-120.531750">
        <ele>177.301</ele>
        <time>2018-12-28T15:51:17Z</time>
      </trkpt>
      <trkpt lat="36.565960" lon="-120.534230">
        <ele>175.111</ele>
        <time>2018-12-28T15:51:37Z</time>
      </trkpt>
      <trkpt lat="36.566940" lon="-120.535530">
        <ele>171.808</ele>
        <time>2018-12-28T15:51:57Z</time>
      </trkpt>
      <trkpt lat="36.567540" lon="-120.536310">
        <ele>173.658</ele>
        <time>2018-12-28T15:52:17Z</time>
      </trkpt>
      <trkpt lat="36.567830" lon="-120.536700">
        <ele>173.856</ele>
        <time>2018-12-28T15:52:37Z</time>
      </trkpt>
      <trkpt lat="36.568890" lon="-120.538100">
        <ele>173.251</ele>
        <time>2018-12-28T15:52:57Z</time>
      </trkpt>
      <trkpt lat="36.571060" lon="-120.540960">
        <ele>172.330</ele>
        <time>2018-12-28T15:53:17Z</time>
      </trkpt>
      <trkpt lat="36.572770" lon="-120.543240">
        <ele>174.044</ele>
        <time>2018-12-28T15:53:37Z</time>
      </trkpt>
      <trkpt lat="36.573140" lon="-120.543730">
        <ele>174.287</ele>
        <time>2018-12-28T15:53:57Z</time>
      </trkpt>
      <trkpt lat="36.575190" lon="-120.546440">
        <ele>175.341</ele>
        <time>2018-12-28T15:54:17Z</time>
      </trkpt>
      <trkpt lat="36.575890" lon="-120.547370">
        <ele>175.844</ele>
        <time>2018-12-28T15:54:37Z</time>
      </trkpt>
      <trkpt lat="36.579130" lon="-120.551660">
        <ele>177.237</ele>
        <time>2018-12-28T15:54:57Z</time>
      </trkpt>
      <trkpt lat="36.581420" lon="-120.554690">
        <ele>176.749</ele>
        <time>2018-12-28T15:55:17Z</time>
      </trkpt>
      <trkpt lat="36.583910" lon="-120.557980">
        <ele>174.813</ele>
        <time>2018-12-28T15:55:37Z</time>
      </trkpt>
      <trkpt lat="36.585590" lon="-120.560220">
        <ele>175.508</ele>
        <time>2018-12-28T15:55:57Z</time>
      </trkpt>
      <trkpt lat="36.586580" lon="-120.561520">
        <ele>176.556</ele>
        <time>2018-12-28T15:56:17Z</time>
      </trkpt>
      <trkpt lat="36.588180" lon="-120.563640">
        <ele>178.154</ele>
        <time>2018-12-28T15:56:37Z</time>
      </trkpt>
      <trkpt lat="36.589620" lon="-120.565550">
        <ele>179.679</ele>
        <time>2018-12-28T15:56:57Z</time>
      </trkpt>
      <trkpt lat="36.593440" lon="-120.570600">
        <ele>182.338</ele>
        <time>2018-12-28T15:57:17Z</time>
      </trkpt>
      <trkpt lat="36.595300" lon="-120.573070">
        <ele>183.352</ele>
        <time>2018-12-28T15:57:37Z</time>
      </trkpt>
      <trkpt lat="36.596020" lon="-120.574040">
        <ele>181.965</ele>
        <time>2018-12-28T15:57:57Z</time>
      </trkpt>
      <trkpt lat="36.596140" lon="-120.574200">
        <ele>181.849</ele>
        <time>2018-12-28T15:58:17Z</time>
      </trkpt>
      <trkpt lat="36.596500" lon="-120.574660">
        <ele>184.222</ele>
        <time>2018-12-28T15:58:37Z</time>
      </trkpt>
      <trkpt lat="36.596910" lon="-120.575210">
        <ele>184.488</ele>
        <time>2018-12-28T15:58:57Z</time>
      </trkpt>
      <trkpt lat="36.597690" lon="-120.576250">
        <ele>185.024</ele>
        <time>2018-12-28T15:59:17Z</time>
      </trkpt>
      <trkpt lat="36.599200" lon="-120.578240">
        <ele>185.726</ele>
        <time>2018-12-28T15:59:37Z</time>
      </trkpt>
      <trkpt lat="36.600010" lon="-120.579300">
        <ele>185.608</ele>
        <time>2018-12-28T15:59:57Z</time>
      </trkpt>
      <trkpt lat="36.602030" lon="-120.581990">
        <ele>184.271</ele>
        <time>2018-12-28T16:00:17Z</time>
      </trkpt>
      <trkpt lat="36.602160" lon="-120.582170">
        <ele>184.179</ele>
        <time>2018-12-28T16:00:37Z</time>
      </trkpt>
      <trkpt lat="36.604180" lon="-120.584850">
        <ele>182.934</ele>
        <time>2018-12-28T16:00:57Z</time>
      </trkpt>
      <trkpt lat="36.606270" lon="-120.587610">
        <ele>181.283</ele>
        <time>2018-12-28T16:01:17Z</time>
      </trkpt>
      <trkpt lat="36.606670" lon="-120.588140">
        <ele>180.817</ele>
        <time>2018-12-28T16:01:37Z</time>
      </trkpt>
      <trkpt lat="36.607080" lon="-120.588680">
        <ele>180.280</ele>
        <time>2018-12-28T16:01:57Z</time>
      </trkpt>
      <trkpt lat="36.609260" lon="-120.591570">
        <ele>177.614</ele>
        <time>2018-12-28T16:02:17Z</time>
      </trkpt>
      <trkpt lat="36.611300" lon="-120.594280">
        <ele>177.097</ele>
        <time>2018-12-28T16:02:37Z</time>
      </trkpt>
      <trkpt lat="36.612010" lon="-120.595230">
        <ele>177.069</ele>
        <time>2018-12-28T16:02:57Z</time>
      </trkpt>
      <trkpt lat="36.612810" lon="-120.596290">
        <ele>177.104</ele>
        <time>2018-12-28T16:03:17Z</time>
      </trkpt>
      <trkpt lat="36.613700" lon="-120.597470">
        <ele>176.924</ele>
        <time>2018-12-28T16:03:37Z</time>
      </trkpt>
      <trkpt lat="36.614410" lon="-120.598410">
        <ele>177.208</ele>
        <time>2018-12-28T16:03:57Z</time>
      </trkpt>
      <trkpt lat="36.615390" lon="-120.599710">
        <ele>177.669</ele>
        <time>2018-12-28T16:04:17Z</time>
      </trkpt>
      <trkpt lat="36.615740" lon="-120.600180">
        <ele>177.647</ele>
        <time>2018-12-28T16:04:37Z</time>
      </trkpt>
      <trkpt lat="36.616540" lon="-120.601240">
        <ele>177.982</ele>
        <time>2018-12-28T16:04:57Z</time>
      </trkpt>
      <trkpt lat="36.617080" lon="-120.601950">
        <ele>178.251</ele>
        <time>2018-12-28T16:05:17Z</time>
      </trkpt>
      <trkpt lat="36.617610" lon="-120.602660">
        <ele>178.385</ele>
        <time>2018-12-28T16:05:37Z</time>
      </trkpt>
      <trkpt lat="36.618680" lon="-120.604070">
        <ele>177.658</ele>
        <time>2018-12-28T16:05:57Z</time>
      </trkpt>
      <trkpt lat="36.619030" lon="-120.604540">
        <ele>177.242</ele>
        <time>2018-12-28T16:06:17Z</time>
      </trkpt>
      <trkpt lat="36.619740" lon="-120.605490">
        <ele>176.665</ele>
        <time>2018-12-28T16:06:37Z</time>
      </trkpt>
      <trkpt lat="36.620170" lon="-120.606060">
        <ele>176.217</ele>
        <time>2018-12-28T16:06:57Z</time>
      </trkpt>
      <trkpt lat="36.620790" lon="-120.606880">
        <ele>175.587</ele>
        <time>2018-12-28T16:07:17Z</time>
      </trkpt>
      <trkpt lat="36.621150" lon="-120.607350">
        <ele>175.015</ele>
        <time>2018-12-28T16:07:37Z</time>
      </trkpt>
      <trkpt lat="36.621420" lon="-120.607700">
        <ele>174.608</ele>
        <time>2018-12-28T16:07:57Z</time>
      </trkpt>
      <trkpt lat="36.621600" lon="-120.607930">
        <ele>174.594</ele>
        <time>2018-12-28T16:08:17Z</time>
      </trkpt>
      <trkpt lat="36.621880" lon="-120.608280">
        <ele>174.012</ele>
        <time>2018-12-28T16:08:37Z</time>
      </trkpt>
      <trkpt lat="36.622350" lon="-120.608830">
        <ele>172.037</ele>
        <time>2018-12-28T16:08:57Z</time>
      </trkpt>
      <trkpt lat="36.622770" lon="-120.609310">
        <ele>172.836</ele>
        <time>2018-12-28T16:09:17Z</time>
      </trkpt>
      <trkpt lat="36.623160" lon="-120.609720">
        <ele>172.620</ele>
        <time>2018-12-28T16:09:37Z</time>
      </trkpt>
      <trkpt lat="36.623360" lon="-120.609930">
        <ele>172.313</ele>
        <time>2018-12-28T16:09:57Z</time>
      </trkpt>
      <trkpt lat="36.623600" lon="-120.610170">
        <ele>171.927</ele>
        <time>2018-12-28T16:10:17Z</time>
      </trkpt>
      <trkpt lat="36.623790" lon="-120.610360">
        <ele>171.630</ele>
        <time>2018-12-28T16:10:37Z</time>
      </trkpt>
      <trkpt lat="36.623950" lon="-120.610510">
        <ele>171.426</ele>
        <time>2018-12-28T16:10:57Z</time>
      </trkpt>
      <trkpt lat="36.624070" lon="-120.610620">
        <ele>171.247</ele>
        <time>2018-12-28T16:11:17Z</time>
      </trkpt>
      <trkpt lat="36.624260" lon="-120.610810">
        <ele>170.911</ele>
        <time>2018-12-28T16:11:37Z</time>
      </trkpt>
      <trkpt lat="36.624520" lon="-120.611030">
        <ele>170.408</ele>
        <time>2018-12-28T16:11:57Z</time>
      </trkpt>
      <trkpt lat="36.624720" lon="-120.611210">
        <ele>170.085</ele>
        <time>2018-12-28T16:12:17Z</time>
      </trkpt>
      <trkpt lat="36.624960" lon="-120.611410">
        <ele>169.583</ele>
        <time>2018-12-28T16:12:37Z</time>
      </trkpt>
      <trkpt lat="36.625380" lon="-120.611750">
        <ele>168.828</ele>
        <time>2018-12-28T16:12:57Z</time>
      </trkpt>
      <trkpt lat="36.625760" lon="-120.612050">
        <ele>167.927</ele>
        <time>2018-12-28T16:13:17Z</time>
      </trkpt>
      <trkpt lat="36.626030" lon="-120.612260">
        <ele>167.431</ele>
        <time>2018-12-28T16:13:37Z</time>
      </trkpt>
      <trkpt lat="36.626610" lon="-120.612700">
        <ele>166.444</ele>
        <time>2018-12-28T16:13:57Z</time>
      </trkpt>
      <trkpt lat="36.627460" lon="-120.613350">
        <ele>165.468</ele>
        <time>2018-12-28T16:14:17Z</time>
      </trkpt>
      <trkpt lat="36.629110" lon="-120.614620">
        <ele>162.881</ele>
        <time>2018-12-28T16:14:37Z</time>
      </trkpt>
      <trkpt lat="36.629770" lon="-120.615120">
        <ele>161.559</ele>
        <time>2018-12-28T16:14:57Z</time>
      </trkpt>
      <trkpt lat="36.630290" lon="-120.615520">
        <ele>160.603</ele>
        <time>2018-12-28T16:15:17Z</time>
      </trkpt>
      <trkpt lat="36.630970" lon="-120.616040">
        <ele>159.123</ele>
        <time>2018-12-28T16:15:37Z</time>
      </trkpt>
      <trkpt lat="36.631800" lon="-120.616680">
        <ele>158.808</ele>
        <time>2018-12-28T16:15:57Z</time>
      </trkpt>
      <trkpt lat="36.632840" lon="-120.617480">
        <ele>158.128</ele>
        <time>2018-12-28T16:16:17Z</time>
      </trkpt>
      <trkpt lat="36.633610" lon="-120.618060">
        <ele>157.826</ele>
        <time>2018-12-28T16:16:37Z</time>
      </trkpt>
      <trkpt lat="36.634910" lon="-120.619060">
        <ele>156.261</ele>
        <time>2018-12-28T16:16:57Z</time>
      </trkpt>
      <trkpt lat="36.636400" lon="-120.620200">
        <ele>145.910</ele>
        <time>2018-12-28T16:17:17Z</time>
      </trkpt>
      <trkpt lat="36.636580" lon="-120.620340">
        <ele>145.444</ele>
        <time>2018-12-28T16:17:37Z</time>
      </trkpt>
      <trkpt lat="36.637360" lon="-120.620940">
        <ele>145.257</ele>
        <time>2018-12-28T16:17:57Z</time>
      </trkpt>
      <trkpt lat="36.637550" lon="-120.621090">
        <ele>145.281</ele>
        <time>2018-12-28T16:18:17Z</time>
      </trkpt>
      <trkpt lat="36.637690" lon="-120.621200">
        <ele>145.224</ele>
        <time>2018-12-28T16:18:37Z</time>
      </trkpt>
      <trkpt lat="36.639720" lon="-120.622750">
        <ele>145.085</ele>
        <time>2018-12-28T16:18:57Z</time>
      </trkpt>
      <trkpt lat="36.640250" lon="-120.623160">
        <ele>144.989</ele>
        <time>2018-12-28T16:19:17Z</time>
      </trkpt>
      <trkpt lat="36.641260" lon="-120.623930">
        <ele>144.917</ele>
        <time>2018-12-28T16:19:37Z</time>
      </trkpt>
      <trkpt lat="36.641710" lon="-120.624280">
        <ele>145.008</ele>
        <time>2018-12-28T16:19:57Z</time>
      </trkpt>
      <trkpt lat="36.642160" lon="-120.624620">
        <ele>145.011</ele>
        <time>2018-12-28T16:20:17Z</time>
      </trkpt>
      <trkpt lat="36.642650" lon="-120.625000">
        <ele>145.049</ele>
        <time>2018-12-28T16:20:37Z</time>
      </trkpt>
      <trkpt lat="36.643610" lon="-120.625740">
        <ele>144.844</ele>
        <time>2018-12-28T16:20:57Z</time>
      </trkpt>
      <trkpt lat="36.646460" lon="-120.627920">
        <ele>143.973</ele>
        <time>2018-12-28T16:21:17Z</time>
      </trkpt>
      <trkpt lat="36.647890" lon="-120.629010">
        <ele>143.427</ele>
        <time>2018-12-28T16:21:37Z</time>
      </trkpt>
      <trkpt lat="36.649260" lon="-120.630070">
        <ele>143.020</ele>
        <time>2018-12-28T16:21:57Z</time>
      </trkpt>
      <trkpt lat="36.649950" lon="-120.630600">
        <ele>142.874</ele>
        <time>2018-12-28T16:22:17Z</time>
      </trkpt>
      <trkpt lat="36.650710" lon="-120.631180">
        <ele>142.687</ele>
        <time>2018-12-28T16:22:37Z</time>
      </trkpt>
      <trkpt lat="36.651290" lon="-120.631630">
        <ele>142.548</ele>
        <time>2018-12-28T16:22:57Z</time>
      </trkpt>
      <trkpt lat="36.651760" lon="-120.631980">
        <ele>141.961</ele>
        <time>2018-12-28T16:23:17Z</time>
      </trkpt>
      <trkpt lat="36.652540" lon="-120.632580">
        <ele>142.517</ele>
        <time>2018-12-28T16:23:37Z</time>
      </trkpt>
      <trkpt lat="36.653060" lon="-120.632970">
        <ele>143.608</ele>
        <time>2018-12-28T16:23:57Z</time>
      </trkpt>
      <trkpt lat="36.653470" lon="-120.633290">
        <ele>143.667</ele>
        <time>2018-12-28T16:24:17Z</time>
      </trkpt>
      <trkpt lat="36.653560" lon="-120.633360">
        <ele>141.935</ele>
        <time>2018-12-28T16:24:37Z</time>
      </trkpt>
      <trkpt lat="36.653680" lon="-120.633460">
        <ele>139.310</ele>
        <time>2018-12-28T16:24:57Z</time>
      </trkpt>
      <trkpt lat="36.653840" lon="-120.633590">
        <ele>137.839</ele>
        <time>2018-12-28T16:25:17Z</time>
      </trkpt>
      <trkpt lat="36.654250" lon="-120.633890">
        <ele>141.093</ele>
        <time>2018-12-28T16:25:37Z</time>
      </trkpt>
      <trkpt lat="36.654790" lon="-120.634300">
        <ele>141.926</ele>
        <time>2018-12-28T16:25:57Z</time>
      </trkpt>
      <trkpt lat="36.655240" lon="-120.634650">
        <ele>142.280</ele>
        <time>2018-12-28T16:26:17Z</time>
      </trkpt>
      <trkpt lat="36.656220" lon="-120.635390">
        <ele>142.473</ele>
        <time>2018-12-28T16:26:37Z</time>
      </trkpt>
      <trkpt lat="36.656830" lon="-120.635870">
        <ele>142.681</ele>
        <time>2018-12-28T16:26:57Z</time>
      </trkpt>
      <trkpt lat="36.657440" lon="-120.636330">
        <ele>142.861</ele>
        <time>2018-12-28T16:27:17Z</time>
      </trkpt>
      <trkpt lat="36.657870" lon="-120.636670">
        <ele>143.017</ele>
        <time>2018-12-28T16:27:37Z</time>
      </trkpt>
      <trkpt lat="36.658740" lon="-120.637330">
        <ele>143.408</ele>
        <time>2018-12-28T16:27:57Z</time>
      </trkpt>
      <trkpt lat="36.659160" lon="-120.637660">
        <ele>143.681</ele>
        <time>2018-12-28T16:28:17Z</time>
      </trkpt>
      <trkpt lat="36.662010" lon="-120.639840">
        <ele>145.689</ele>
        <time>2018-12-28T16:28:37Z</time>
      </trkpt>
      <trkpt lat="36.662720" lon="-120.640390">
        <ele>146.014</ele>
        <time>2018-12-28T16:28:57Z</time>
      </trkpt>
      <trkpt lat="36.663900" lon="-120.641290">
        <ele>146.613</ele>
        <time>2018-12-28T16:29:17Z</time>
      </trkpt>
      <trkpt lat="36.664780" lon="-120.641950">
        <ele>147.097</ele>
        <time>2018-12-28T16:29:37Z</time>
      </trkpt>
      <trkpt lat="36.665530" lon="-120.642530">
        <ele>147.410</ele>
        <time>2018-12-28T16:29:57Z</time>
      </trkpt>
      <trkpt lat="36.666580" lon="-120.643330">
        <ele>147.894</ele>
        <time>2018-12-28T16:30:17Z</time>
      </trkpt>
      <trkpt lat="36.668040" lon="-120.644450">
        <ele>148.857</ele>
        <time>2018-12-28T16:30:37Z</time>
      </trkpt>
      <trkpt lat="36.668500" lon="-120.644810">
        <ele>149.259</ele>
        <time>2018-12-28T16:30:57Z</time>
      </trkpt>
      <trkpt lat="36.669540" lon="-120.645610">
        <ele>150.003</ele>
        <time>2018-12-28T16:31:17Z</time>
      </trkpt>
      <trkpt lat="36.671180" lon="-120.646870">
        <ele>151.723</ele>
        <time>2018-12-28T16:31:37Z</time>
      </trkpt>
      <trkpt lat="36.671640" lon="-120.647220">
        <ele>152.208</ele>
        <time>2018-12-28T16:31:57Z</time>
      </trkpt>
      <trkpt lat="36.673160" lon="-120.648380">
        <ele>154.088</ele>
        <time>2018-12-28T16:32:17Z</time>
      </trkpt>
      <trkpt lat="36.674230" lon="-120.649210">
        <ele>155.396</ele>
        <time>2018-12-28T16:32:37Z</time>
      </trkpt>
      <trkpt lat="36.675280" lon="-120.650010">
        <ele>156.311</ele>
        <time>2018-12-28T16:32:57Z</time>
      </trkpt>
      <trkpt lat="36.675760" lon="-120.650380">
        <ele>156.740</ele>
        <time>2018-12-28T16:33:17Z</time>
      </trkpt>
      <trkpt lat="36.676390" lon="-120.650870">
        <ele>157.244</ele>
        <time>2018-12-28T16:33:37Z</time>
      </trkpt>
      <trkpt lat="36.677020" lon="-120.651360">
        <ele>157.737</ele>
        <time>2018-12-28T16:33:57Z</time>
      </trkpt>
      <trkpt lat="36.678370" lon="-120.652390">
        <ele>158.741</ele>
        <time>2018-12-28T16:34:17Z</time>
      </trkpt>
      <trkpt lat="36.679310" lon="-120.653110">
        <ele>159.374</ele>
        <time>2018-12-28T16:34:37Z</time>
      </trkpt>
      <trkpt lat="36.680430" lon="-120.653980">
        <ele>159.945</ele>
        <time>2018-12-28T16:34:57Z</time>
      </trkpt>
      <trkpt lat="36.682320" lon="-120.655430">
        <ele>160.647</ele>
        <time>2018-12-28T16:35:17Z</time>
      </trkpt>
      <trkpt lat="36.683530" lon="-120.656350">
        <ele>161.111</ele>
        <time>2018-12-28T16:35:37Z</time>
      </trkpt>
      <trkpt lat="36.683680" lon="-120.656470">
        <ele>161.108</ele>
        <time>2018-12-28T16:35:57Z</time>
      </trkpt>
      <trkpt lat="36.683760" lon="-120.656530">
        <ele>161.227</ele>
        <time>2018-12-28T16:36:17Z</time>
      </trkpt>
      <trkpt lat="36.684680" lon="-120.657230">
        <ele>161.485</ele>
        <time>2018-12-28T16:36:37Z</time>
      </trkpt>
      <trkpt lat="36.685680" lon="-120.657990">
        <ele>161.750</ele>
        <time>2018-12-28T16:36:57Z</time>
      </trkpt>
      <trkpt lat="36.686250" lon="-120.658430">
        <ele>161.889</ele>
        <time>2018-12-28T16:37:17Z</time>
      </trkpt>
      <trkpt lat="36.686800" lon="-120.658860">
        <ele>161.933</ele>
        <time>2018-12-28T16:37:37Z</time>
      </trkpt>
      <trkpt lat="36.687350" lon="-120.659280">
        <ele>162.086</ele>
        <time>2018-12-28T16:37:57Z</time>
      </trkpt>
      <trkpt lat="36.688060" lon="-120.659820">
        <ele>162.230</ele>
        <time>2018-12-28T16:38:17Z</time>
      </trkpt>
      <trkpt lat="36.688410" lon="-120.660090">
        <ele>162.223</ele>
        <time>2018-12-28T16:38:37Z</time>
      </trkpt>
      <trkpt lat="36.688540" lon="-120.660190">
        <ele>162.229</ele>
        <time>2018-12-28T16:38:57Z</time>
      </trkpt>
      <trkpt lat="36.689180" lon="-120.660690">
        <ele>162.100</ele>
        <time>2018-12-28T16:39:17Z</time>
      </trkpt>
      <trkpt lat="36.689330" lon="-120.660800">
        <ele>162.120</ele>
        <time>2018-12-28T16:39:37Z</time>
      </trkpt>
      <trkpt lat="36.690200" lon="-120.661470">
        <ele>161.908</ele>
        <time>2018-12-28T16:39:57Z</time>
      </trkpt>
      <trkpt lat="36.690620" lon="-120.661790">
        <ele>161.885</ele>
        <time>2018-12-28T16:40:17Z</time>
      </trkpt>
      <trkpt lat="36.691030" lon="-120.662100">
        <ele>161.663</ele>
        <time>2018-12-28T16:40:37Z</time>
      </trkpt>
      <trkpt lat="36.691410" lon="-120.662400">
        <ele>161.598</ele>
        <time>2018-12-28T16:40:57Z</time>
      </trkpt>
      <trkpt lat="36.691910" lon="-120.662780">
        <ele>161.437</ele>
        <time>2018-12-28T16:41:17Z</time>
      </trkpt>
      <trkpt lat="36.692420" lon="-120.663170">
        <ele>161.421</ele>
        <time>2018-12-28T16:41:37Z</time>
      </trkpt>
      <trkpt lat="36.692870" lon="-120.663510">
        <ele>161.424</ele>
        <time>2018-12-28T16:41:57Z</time>
      </trkpt>
      <trkpt lat="36.693020" lon="-120.663630">
        <ele>161.498</ele>
        <time>2018-12-28T16:42:17Z</time>
      </trkpt>
      <trkpt lat="36.697150" lon="-120.666810">
        <ele>161.931</ele>
        <time>2018-12-28T16:42:37Z</time>
      </trkpt>
      <trkpt lat="36.700160" lon="-120.669120">
        <ele>162.966</ele>
        <time>2018-12-28T16:42:57Z</time>
      </trkpt>
      <trkpt lat="36.700940" lon="-120.669720">
        <ele>163.329</ele>
        <time>2018-12-28T16:43:17Z</time>
      </trkpt>
      <trkpt lat="36.701490" lon="-120.670140">
        <ele>163.621</ele>
        <time>2018-12-28T16:43:37Z</time>
      </trkpt>
      <trkpt lat="36.702200" lon="-120.670690">
        <ele>164.208</ele>
        <time>2018-12-28T16:43:57Z</time>
      </trkpt>
      <trkpt lat="36.702970" lon="-120.671280">
        <ele>164.799</ele>
        <time>2018-12-28T16:44:17Z</time>
      </trkpt>
      <trkpt lat="36.703980" lon="-120.672050">
        <ele>165.377</ele>
        <time>2018-12-28T16:44:37Z</time>
      </trkpt>
      <trkpt lat="36.704620" lon="-120.672540">
        <ele>165.692</ele>
        <time>2018-12-28T16:44:57Z</time>
      </trkpt>
      <trkpt lat="36.705320" lon="-120.673080">
        <ele>165.781</ele>
        <time>2018-12-28T16:45:17Z</time>
      </trkpt>
      <trkpt lat="36.707120" lon="-120.674460">
        <ele>165.815</ele>
        <time>2018-12-28T16:45:37Z</time>
      </trkpt>
      <trkpt lat="36.708110" lon="-120.675210">
        <ele>165.788</ele>
        <time>2018-12-28T16:45:57Z</time>
      </trkpt>
      <trkpt lat="36.709140" lon="-120.676020">
        <ele>165.512</ele>
        <time>2018-12-28T16:46:17Z</time>
      </trkpt>
      <trkpt lat="36.710040" lon="-120.676700">
        <ele>165.225</ele>
        <time>2018-12-28T16:46:37Z</time>
      </trkpt>
      <trkpt lat="36.711720" lon="-120.677990">
        <ele>164.452</ele>
        <time>2018-12-28T16:46:57Z</time>
      </trkpt>
      <trkpt lat="36.713850" lon="-120.679630">
        <ele>164.253</ele>
        <time>2018-12-28T16:47:17Z</time>
      </trkpt>
      <trkpt lat="36.714870" lon="-120.680410">
        <ele>164.408</ele>
        <time>2018-12-28T16:47:37Z</time>
      </trkpt>
      <trkpt lat="36.716210" lon="-120.681440">
        <ele>165.008</ele>
        <time>2018-12-28T16:47:57Z</time>
      </trkpt>
      <trkpt lat="36.716980" lon="-120.682020">
        <ele>165.348</ele>
        <time>2018-12-28T16:48:17Z</time>
      </trkpt>
      <trkpt lat="36.717670" lon="-120.682540">
        <ele>165.646</ele>
        <time>2018-12-28T16:48:37Z</time>
      </trkpt>
      <trkpt lat="36.717990" lon="-120.682770">
        <ele>165.751</ele>
        <time>2018-12-28T16:48:57Z</time>
      </trkpt>
      <trkpt lat="36.718450" lon="-120.683100">
        <ele>165.740</ele>
        <time>2018-12-28T16:49:17Z</time>
      </trkpt>
      <trkpt lat="36.718790" lon="-120.683340">
        <ele>165.874</ele>
        <time>2018-12-28T16:49:37Z</time>
      </trkpt>
      <trkpt lat="36.718900" lon="-120.683430">
        <ele>165.847</ele>
        <time>2018-12-28T16:49:57Z</time>
      </trkpt>
      <trkpt lat="36.719250" lon="-120.683670">
        <ele>165.861</ele>
        <time>2018-12-28T16:50:17Z</time>
      </trkpt>
      <trkpt lat="36.719820" lon="-120.684070">
        <ele>165.864</ele>
        <time>2018-12-28T16:50:37Z</time>
      </trkpt>
      <trkpt lat="36.721900" lon="-120.685500">
        <ele>165.535</ele>
        <time>2018-12-28T16:50:57Z</time>
      </trkpt>
      <trkpt lat="36.722170" lon="-120.685680">
        <ele>165.586</ele>
        <time>2018-12-28T16:51:17Z</time>
      </trkpt>
      <trkpt lat="36.723090" lon="-120.686310">
        <ele>165.314</ele>
        <time>2018-12-28T16:51:37Z</time>
      </trkpt>
      <trkpt lat="36.723680" lon="-120.686720">
        <ele>165.408</ele>
        <time>2018-12-28T16:51:57Z</time>
      </trkpt>
      <trkpt lat="36.724450" lon="-120.687250">
        <ele>165.736</ele>
        <time>2018-12-28T16:52:17Z</time>
      </trkpt>
      <trkpt lat="36.725430" lon="-120.687920">
        <ele>164.934</ele>
        <time>2018-12-28T16:52:37Z</time>
      </trkpt>
      <trkpt lat="36.726120" lon="-120.688390">
        <ele>163.419</ele>
        <time>2018-12-28T16:52:57Z</time>
      </trkpt>
      <trkpt lat="36.727990" lon="-120.689680">
        <ele>159.128</ele>
        <time>2018-12-28T16:53:17Z</time>
      </trkpt>
      <trkpt lat="36.728860" lon="-120.690280">
        <ele>159.282</ele>
        <time>2018-12-28T16:53:37Z</time>
      </trkpt>
      <trkpt lat="36.729470" lon="-120.690690">
        <ele>159.255</ele>
        <time>2018-12-28T16:53:57Z</time>
      </trkpt>
      <trkpt lat="36.729700" lon="-120.690850">
        <ele>159.119</ele>
        <time>2018-12-28T16:54:17Z</time>
      </trkpt>
      <trkpt lat="36.730450" lon="-120.691360">
        <ele>158.572</ele>
        <time>2018-12-28T16:54:37Z</time>
      </trkpt>
      <trkpt lat="36.730700" lon="-120.691540">
        <ele>158.214</ele>
        <time>2018-12-28T16:54:57Z</time>
      </trkpt>
      <trkpt lat="36.731050" lon="-120.691780">
        <ele>158.054</ele>
        <time>2018-12-28T16:55:17Z</time>
      </trkpt>
      <trkpt lat="36.731280" lon="-120.691940">
        <ele>158.009</ele>
        <time>2018-12-28T16:55:37Z</time>
      </trkpt>
      <trkpt lat="36.733070" lon="-120.693160">
        <ele>158.808</ele>
        <time>2018-12-28T16:55:57Z</time>
      </trkpt>
      <trkpt lat="36.733510" lon="-120.693470">
        <ele>159.044</ele>
        <time>2018-12-28T16:56:17Z</time>
      </trkpt>
      <trkpt lat="36.734580" lon="-120.694200">
        <ele>159.342</ele>
        <time>2018-12-28T16:56:37Z</time>
      </trkpt>
      <trkpt lat="36.735270" lon="-120.694670">
        <ele>159.567</ele>
        <time>2018-12-28T16:56:57Z</time>
      </trkpt>
      <trkpt lat="36.735580" lon="-120.694890">
        <ele>159.626</ele>
        <time>2018-12-28T16:57:17Z</time>
      </trkpt>
      <trkpt lat="36.736270" lon="-120.695360">
        <ele>160.090</ele>
        <time>2018-12-28T16:57:37Z</time>
      </trkpt>
      <trkpt lat="36.736510" lon="-120.695530">
        <ele>160.223</ele>
        <time>2018-12-28T16:57:57Z</time>
      </trkpt>
      <trkpt lat="36.736770" lon="-120.695700">
        <ele>160.557</ele>
        <time>2018-12-28T16:58:17Z</time>
      </trkpt>
      <trkpt lat="36.737240" lon="-120.696020">
        <ele>161.150</ele>
        <time>2018-12-28T16:58:37Z</time>
      </trkpt>
      <trkpt lat="36.737660" lon="-120.696300">
        <ele>161.715</ele>
        <time>2018-12-28T16:58:57Z</time>
      </trkpt>
      <trkpt lat="36.739080" lon="-120.697280">
        <ele>163.865</ele>
        <time>2018-12-28T16:59:17Z</time>
      </trkpt>
      <trkpt lat="36.740310" lon="-120.698120">
        <ele>165.511</ele>
        <time>2018-12-28T16:59:37Z</time>
      </trkpt>
      <trkpt lat="36.741060" lon="-120.698640">
        <ele>166.208</ele>
        <time>2018-12-28T16:59:57Z</time>
      </trkpt>
      <trkpt lat="36.742710" lon="-120.699770">
        <ele>167.094</ele>
        <time>2018-12-28T17:00:17Z</time>
      </trkpt>
      <trkpt lat="36.743250" lon="-120.700140">
        <ele>166.952</ele>
        <time>2018-12-28T17:00:37Z</time>
      </trkpt>
      <trkpt lat="36.743740" lon="-120.700470">
        <ele>167.257</ele>
        <time>2018-12-28T17:00:57Z</time>
      </trkpt>
      <trkpt lat="36.750150" lon="-120.704880">
        <ele>175.156</ele>
        <time>2018-12-28T17:01:17Z</time>
      </trkpt>
      <trkpt lat="36.753170" lon="-120.706960">
        <ele>175.950</ele>
        <time>2018-12-28T17:01:37Z</time>
      </trkpt>
      <trkpt lat="36.754510" lon="-120.707880">
        <ele>176.063</ele>
        <time>2018-12-28T17:01:57Z</time>
      </trkpt>
      <trkpt lat="36.755550" lon="-120.708580">
        <ele>175.347</ele>
        <time>2018-12-28T17:02:17Z</time>
      </trkpt>
      <trkpt lat="36.757910" lon="-120.710190">
        <ele>175.270</ele>
        <time>2018-12-28T17:02:37Z</time>
      </trkpt>
      <trkpt lat="36.774200" lon="-120.721390">
        <ele>152.926</ele>
        <time>2018-12-28T17:02:57Z</time>
      </trkpt>
      <trkpt lat="36.774530" lon="-120.721620">
        <ele>152.247</ele>
        <time>2018-12-28T17:03:17Z</time>
      </trkpt>
      <trkpt lat="36.775290" lon="-120.722130">
        <ele>150.811</ele>
        <time>2018-12-28T17:03:37Z</time>
      </trkpt>
      <trkpt lat="36.776330" lon="-120.722850">
        <ele>149.308</ele>
        <time>2018-12-28T17:03:57Z</time>
      </trkpt>
      <trkpt lat="36.776950" lon="-120.723270">
        <ele>148.555</ele>
        <time>2018-12-28T17:04:17Z</time>
      </trkpt>
      <trkpt lat="36.777390" lon="-120.723570">
        <ele>147.953</ele>
        <time>2018-12-28T17:04:37Z</time>
      </trkpt>
      <trkpt lat="36.777730" lon="-120.723820">
        <ele>147.658</ele>
        <time>2018-12-28T17:04:57Z</time>
      </trkpt>
      <trkpt lat="36.778230" lon="-120.724150">
        <ele>147.177</ele>
        <time>2018-12-28T17:05:17Z</time>
      </trkpt>
      <trkpt lat="36.780070" lon="-120.725420">
        <ele>144.641</ele>
        <time>2018-12-28T17:05:37Z</time>
      </trkpt>
      <trkpt lat="36.780530" lon="-120.725740">
        <ele>144.134</ele>
        <time>2018-12-28T17:05:57Z</time>
      </trkpt>
      <trkpt lat="36.804820" lon="-120.742440">
        <ele>117.478</ele>
        <time>2018-12-28T17:06:17Z</time>
      </trkpt>
      <trkpt lat="36.805000" lon="-120.742560">
        <ele>116.741</ele>
        <time>2018-12-28T17:06:37Z</time>
      </trkpt>
      <trkpt lat="36.805170" lon="-120.742680">
        <ele>116.931</ele>
        <time>2018-12-28T17:06:57Z</time>
      </trkpt>
      <trkpt lat="36.813370" lon="-120.748320">
        <ele>120.461</ele>
        <time>2018-12-28T17:07:17Z</time>
      </trkpt>
      <trkpt lat="36.815820" lon="-120.750000">
        <ele>120.907</ele>
        <time>2018-12-28T17:07:37Z</time>
      </trkpt>
      <trkpt lat="36.816370" lon="-120.750380">
        <ele>121.308</ele>
        <time>2018-12-28T17:07:57Z</time>
      </trkpt>
      <trkpt lat="36.819140" lon="-120.752280">
        <ele>123.416</ele>
        <time>2018-12-28T17:08:17Z</time>
      </trkpt>
      <trkpt lat="36.824440" lon="-120.755920">
        <ele>122.914</ele>
        <time>2018-12-28T17:08:37Z</time>
      </trkpt>
      <trkpt lat="36.825600" lon="-120.756730">
        <ele>123.829</ele>
        <time>2018-12-28T17:08:57Z</time>
      </trkpt>
      <trkpt lat="36.830650" lon="-120.760220">
        <ele>130.748</ele>
        <time>2018-12-28T17:09:17Z</time>
      </trkpt>
      <trkpt lat="36.832030" lon="-120.761150">
        <ele>129.322</ele>
        <time>2018-12-28T17:09:37Z</time>
      </trkpt>
      <trkpt lat="36.835600" lon="-120.763600">
        <ele>129.345</ele>
        <time>2018-12-28T17:09:57Z</time>
      </trkpt>
      <trkpt lat="36.835690" lon="-120.763670">
        <ele>129.519</ele>
        <time>2018-12-28T17:10:17Z</time>
      </trkpt>
      <trkpt lat="36.847130" lon="-120.771560">
        <ele>122.882</ele>
        <time>2018-12-28T17:10:37Z</time>
      </trkpt>
      <trkpt lat="36.847500" lon="-120.771810">
        <ele>123.559</ele>
        <time>2018-12-28T17:10:57Z</time>
      </trkpt>
      <trkpt lat="36.848250" lon="-120.772330">
        <ele>124.103</ele>
        <time>2018-12-28T17:11:17Z</time>
      </trkpt>
      <trkpt lat="36.849530" lon="-120.773200">
        <ele>122.923</ele>
        <time>2018-12-28T17:11:37Z</time>
      </trkpt>
      <trkpt lat="36.850220" lon="-120.773680">
        <ele>124.208</ele>
        <time>2018-12-28T17:11:57Z</time>
      </trkpt>
      <trkpt lat="36.851580" lon="-120.774600">
        <ele>121.648</ele>
        <time>2018-12-28T17:12:17Z</time>
      </trkpt>
      <trkpt lat="36.852310" lon="-120.775110">
        <ele>122.676</ele>
        <time>2018-12-28T17:12:37Z</time>
      </trkpt>
      <trkpt lat="36.852600" lon="-120.775300">
        <ele>123.251</ele>
        <time>2018-12-28T17:12:57Z</time>
      </trkpt>
      <trkpt lat="36.852970" lon="-120.775560">
        <ele>123.760</ele>
        <time>2018-12-28T17:13:17Z</time>
      </trkpt>
      <trkpt lat="36.855130" lon="-120.777050">
        <ele>121.854</ele>
        <time>2018-12-28T17:13:37Z</time>
      </trkpt>
      <trkpt lat="36.855490" lon="-120.777300">
        <ele>121.577</ele>
        <time>2018-12-28T17:13:57Z</time>
      </trkpt>
      <trkpt lat="36.856540" lon="-120.778020">
        <ele>122.941</ele>
        <time>2018-12-28T17:14:17Z</time>
      </trkpt>
      <trkpt lat="36.858240" lon="-120.779190">
        <ele>120.234</ele>
        <time>2018-12-28T17:14:37Z</time>
      </trkpt>
      <trkpt lat="36.859330" lon="-120.779940">
        <ele>119.882</ele>
        <time>2018-12-28T17:14:57Z</time>
      </trkpt>
      <trkpt lat="36.860310" lon="-120.780620">
        <ele>119.343</ele>
        <time>2018-12-28T17:15:17Z</time>
      </trkpt>
      <trkpt lat="36.860340" lon="-120.780640">
        <ele>119.317</ele>
        <time>2018-12-28T17:15:37Z</time>
      </trkpt>
      <trkpt lat="36.860510" lon="-120.780760">
        <ele>119.308</ele>
        <time>2018-12-28T17:15:57Z</time>
      </trkpt>
      <trkpt lat="36.860740" lon="-120.780920">
        <ele>119.421</ele>
        <time>2018-12-28T17:16:17Z</time>
      </trkpt>
      <trkpt lat="36.862910" lon="-120.782420">
        <ele>117.729</ele>
        <time>2018-12-28T17:16:37Z</time>
      </trkpt>
      <trkpt lat="36.864190" lon="-120.783300">
        <ele>116.194</ele>
        <time>2018-12-28T17:16:57Z</time>
      </trkpt>
      <trkpt lat="36.867260" lon="-120.785410">
        <ele>113.623</ele>
        <time>2018-12-28T17:17:17Z</time>
      </trkpt>
      <trkpt lat="36.867550" lon="-120.785610">
        <ele>113.287</ele>
        <time>2018-12-28T17:17:37Z</time>
      </trkpt>
      <trkpt lat="36.867890" lon="-120.785840">
        <ele>113.410</ele>
        <time>2018-12-28T17:17:57Z</time>
      </trkpt>
      <trkpt lat="36.868220" lon="-120.786070">
        <ele>114.094</ele>
        <time>2018-12-28T17:18:17Z</time>
      </trkpt>
      <trkpt lat="36.870860" lon="-120.787880">
        <ele>117.047</ele>
        <time>2018-12-28T17:18:37Z</time>
      </trkpt>
      <trkpt lat="36.872590" lon="-120.789080">
        <ele>110.754</ele>
        <time>2018-12-28T17:18:57Z</time>
      </trkpt>
      <trkpt lat="36.875220" lon="-120.790880">
        <ele>115.856</ele>
        <time>2018-12-28T17:19:17Z</time>
      </trkpt>
      <trkpt lat="36.876200" lon="-120.791570">
        <ele>116.211</ele>
        <time>2018-12-28T17:19:37Z</time>
      </trkpt>
      <trkpt lat="36.877270" lon="-120.792310">
        <ele>115.108</ele>
        <time>2018-12-28T17:19:57Z</time>
      </trkpt>
      <trkpt lat="36.877620" lon="-120.792560">
        <ele>115.948</ele>
        <time>2018-12-28T17:20:17Z</time>
      </trkpt>
      <trkpt lat="36.880040" lon="-120.794230">
        <ele>117.286</ele>
        <time>2018-12-28T17:20:37Z</time>
      </trkpt>
      <trkpt lat="36.882740" lon="-120.796070">
        <ele>121.931</ele>
        <time>2018-12-28T17:20:57Z</time>
      </trkpt>
      <trkpt lat="36.884020" lon="-120.796960">
        <ele>122.010</ele>
        <time>2018-12-28T17:21:17Z</time>
      </trkpt>
      <trkpt lat="36.884850" lon="-120.797530">
        <ele>120.744</ele>
        <time>2018-12-28T17:21:37Z</time>
      </trkpt>
      <trkpt lat="36.887600" lon="-120.799460">
        <ele>115.967</ele>
        <time>2018-12-28T17:21:57Z</time>
      </trkpt>
      <trkpt lat="36.887970" lon="-120.799710">
        <ele>115.851</ele>
        <time>2018-12-28T17:22:17Z</time>
      </trkpt>
      <trkpt lat="36.888490" lon="-120.800100">
        <ele>115.764</ele>
        <time>2018-12-28T17:22:37Z</time>
      </trkpt>
      <trkpt lat="36.888670" lon="-120.800230">
        <ele>115.726</ele>
        <time>2018-12-28T17:22:57Z</time>
      </trkpt>
      <trkpt lat="36.888970" lon="-120.800460">
        <ele>115.547</ele>
        <time>2018-12-28T17:23:17Z</time>
      </trkpt>
      <trkpt lat="36.889400" lon="-120.800800">
        <ele>115.511</ele>
        <time>2018-12-28T17:23:37Z</time>
      </trkpt>
      <trkpt lat="36.890100" lon="-120.801370">
        <ele>115.508</ele>
        <time>2018-12-28T17:23:57Z</time>
      </trkpt>
      <trkpt lat="36.890580" lon="-120.801780">
        <ele>115.845</ele>
        <time>2018-12-28T17:24:17Z</time>
      </trkpt>
      <trkpt lat="36.891290" lon="-120.802390">
        <ele>116.313</ele>
        <time>2018-12-28T17:24:37Z</time>
      </trkpt>
      <trkpt lat="36.891490" lon="-120.802570">
        <ele>115.018</ele>
        <time>2018-12-28T17:24:57Z</time>
      </trkpt>
      <trkpt lat="36.891690" lon="-120.802750">
        <ele>114.887</ele>
        <time>2018-12-28T17:25:17Z</time>
      </trkpt>
      <trkpt lat="36.893470" lon="-120.804290">
        <ele>116.051</ele>
        <time>2018-12-28T17:25:37Z</time>
      </trkpt>
      <trkpt lat="36.894120" lon="-120.804860">
        <ele>115.064</ele>
        <time>2018-12-28T17:25:57Z</time>
      </trkpt>
      <trkpt lat="36.894440" lon="-120.805150">
        <ele>115.588</ele>
        <time>2018-12-28T17:26:17Z</time>
      </trkpt>
      <trkpt lat="36.894930" lon="-120.805570">
        <ele>116.991</ele>
        <time>2018-12-28T17:26:37Z</time>
      </trkpt>
      <trkpt lat="36.895730" lon="-120.806270">
        <ele>115.826</ele>
        <time>2018-12-28T17:26:57Z</time>
      </trkpt>
      <trkpt lat="36.896050" lon="-120.806550">
        <ele>116.047</ele>
        <time>2018-12-28T17:27:17Z</time>
      </trkpt>
      <trkpt lat="36.897010" lon="-120.807390">
        <ele>115.811</ele>
        <time>2018-12-28T17:27:37Z</time>
      </trkpt>
      <trkpt lat="36.897990" lon="-120.808240">
        <ele>115.508</ele>
        <time>2018-12-28T17:27:57Z</time>
      </trkpt>
      <trkpt lat="36.898630" lon="-120.808800">
        <ele>115.865</ele>
        <time>2018-12-28T17:28:17Z</time>
      </trkpt>
      <trkpt lat="36.898950" lon="-120.809090">
        <ele>115.753</ele>
        <time>2018-12-28T17:28:37Z</time>
      </trkpt>
      <trkpt lat="36.899470" lon="-120.809540">
        <ele>116.368</ele>
        <time>2018-12-28T17:28:57Z</time>
      </trkpt>
      <trkpt lat="36.900030" lon="-120.810030">
        <ele>115.977</ele>
        <time>2018-12-28T17:29:17Z</time>
      </trkpt>
      <trkpt lat="36.901190" lon="-120.811030">
        <ele>118.751</ele>
        <time>2018-12-28T17:29:37Z</time>
      </trkpt>
      <trkpt lat="36.901610" lon="-120.811400">
        <ele>118.154</ele>
        <time>2018-12-28T17:29:57Z</time>
      </trkpt>
      <trkpt lat="36.902790" lon="-120.812400">
        <ele>114.668</ele>
        <time>2018-12-28T17:30:17Z</time>
      </trkpt>
      <trkpt lat="36.903060" lon="-120.812640">
        <ele>114.321</ele>
        <time>2018-12-28T17:30:37Z</time>
      </trkpt>
      <trkpt lat="36.904320" lon="-120.813750">
        <ele>116.329</ele>
        <time>2018-12-28T17:30:57Z</time>
      </trkpt>
      <trkpt lat="36.906300" lon="-120.815510">
        <ele>121.500</ele>
        <time>2018-12-28T17:31:17Z</time>
      </trkpt>
      <trkpt lat="36.907000" lon="-120.816100">
        <ele>119.020</ele>
        <time>2018-12-28T17:31:37Z</time>
      </trkpt>
      <trkpt lat="36.907530" lon="-120.816550">
        <ele>115.108</ele>
        <time>2018-12-28T17:31:57Z</time>
      </trkpt>
      <trkpt lat="36.907800" lon="-120.816780">
        <ele>115.125</ele>
        <time>2018-12-28T17:32:17Z</time>
      </trkpt>
      <trkpt lat="36.908290" lon="-120.817210">
        <ele>115.473</ele>
        <time>2018-12-28T17:32:37Z</time>
      </trkpt>
      <trkpt lat="36.908720" lon="-120.817590">
        <ele>115.528</ele>
        <time>2018-12-28T17:32:57Z</time>
      </trkpt>
      <trkpt lat="36.909460" lon="-120.818230">
        <ele>114.247</ele>
        <time>2018-12-28T17:33:17Z</time>
      </trkpt>
      <trkpt lat="36.910270" lon="-120.818930">
        <ele>113.221</ele>
        <time>2018-12-28T17:33:37Z</time>
      </trkpt>
      <trkpt lat="36.910420" lon="-120.819070">
        <ele>112.634</ele>
        <time>2018-12-28T17:33:57Z</time>
      </trkpt>
      <trkpt lat="36.910750" lon="-120.819350">
        <ele>113.438</ele>
        <time>2018-12-28T17:34:17Z</time>
      </trkpt>
      <trkpt lat="36.910970" lon="-120.819550">
        <ele>113.931</ele>
        <time>2018-12-28T17:34:37Z</time>
      </trkpt>
      <trkpt lat="36.911620" lon="-120.820110">
        <ele>112.998</ele>
        <time>2018-12-28T17:34:57Z</time>
      </trkpt>
      <trkpt lat="36.912040" lon="-120.820480">
        <ele>111.515</ele>
        <time>2018-12-28T17:35:17Z</time>
      </trkpt>
      <trkpt lat="36.912260" lon="-120.820680">
        <ele>110.426</ele>
        <time>2018-12-28T17:35:37Z</time>
      </trkpt>
      <trkpt lat="36.912560" lon="-120.820950">
        <ele>109.508</ele>
        <time>2018-12-28T17:35:57Z</time>
      </trkpt>
      <trkpt lat="36.912770" lon="-120.821150">
        <ele>109.332</ele>
        <time>2018-12-28T17:36:17Z</time>
      </trkpt>
      <trkpt lat="36.912990" lon="-120.821370">
        <ele>109.260</ele>
        <time>2018-12-28T17:36:37Z</time>
      </trkpt>
      <trkpt lat="36.913300" lon="-120.821680">
        <ele>109.455</ele>
        <time>2018-12-28T17:36:57Z</time>
      </trkpt>
      <trkpt lat="36.913700" lon="-120.822090">
        <ele>109.254</ele>
        <time>2018-12-28T17:37:17Z</time>
      </trkpt>
      <trkpt lat="36.913900" lon="-120.822300">
        <ele>108.678</ele>
        <time>2018-12-28T17:37:37Z</time>
      </trkpt>
      <trkpt lat="36.914100" lon="-120.822520">
        <ele>108.081</ele>
        <time>2018-12-28T17:37:57Z</time>
      </trkpt>
      <trkpt lat="36.914290" lon="-120.822720">
        <ele>107.485</ele>
        <time>2018-12-28T17:38:17Z</time>
      </trkpt>
      <trkpt lat="36.914660" lon="-120.823160">
        <ele>112.078</ele>
        <time>2018-12-28T17:38:37Z</time>
      </trkpt>
      <trkpt lat="36.914970" lon="-120.823530">
        <ele>114.248</ele>
        <time>2018-12-28T17:38:57Z</time>
      </trkpt>
      <trkpt lat="36.915240" lon="-120.823870">
        <ele>115.061</ele>
        <time>2018-12-28T17:39:17Z</time>
      </trkpt>
      <trkpt lat="36.915620" lon="-120.824320">
        <ele>111.217</ele>
        <time>2018-12-28T17:39:37Z</time>
      </trkpt>
      <trkpt lat="36.915800" lon="-120.824550">
        <ele>109.708</ele>
        <time>2018-12-28T17:39:57Z</time>
      </trkpt>
      <trkpt lat="36.916170" lon="-120.825010">
        <ele>109.947</ele>
        <time>2018-12-28T17:40:17Z</time>
      </trkpt>
      <trkpt lat="36.916360" lon="-120.825240">
        <ele>110.645</ele>
        <time>2018-12-28T17:40:37Z</time>
      </trkpt>
      <trkpt lat="36.916540" lon="-120.825470">
        <ele>111.240</ele>
        <time>2018-12-28T17:40:57Z</time>
      </trkpt>
      <trkpt lat="36.916730" lon="-120.825710">
        <ele>113.179</ele>
        <time>2018-12-28T17:41:17Z</time>
      </trkpt>
      <trkpt lat="36.917280" lon="-120.826410">
        <ele>116.363</ele>
        <time>2018-12-28T17:41:37Z</time>
      </trkpt>
      <trkpt lat="36.917720" lon="-120.826960">
        <ele>114.636</ele>
        <time>2018-12-28T17:41:57Z</time>
      </trkpt>
      <trkpt lat="36.918180" lon="-120.827530">
        <ele>119.540</ele>
        <time>2018-12-28T17:42:17Z</time>
      </trkpt>
      <trkpt lat="36.918680" lon="-120.828120">
        <ele>119.463</ele>
        <time>2018-12-28T17:42:37Z</time>
      </trkpt>
      <trkpt lat="36.919350" lon="-120.828890">
        <ele>118.478</ele>
        <time>2018-12-28T17:42:57Z</time>
      </trkpt>
      <trkpt lat="36.919650" lon="-120.829230">
        <ele>117.333</ele>
        <time>2018-12-28T17:43:17Z</time>
      </trkpt>
      <trkpt lat="36.920140" lon="-120.829760">
        <ele>118.026</ele>
        <time>2018-12-28T17:43:37Z</time>
      </trkpt>
      <trkpt lat="36.920540" lon="-120.830180">
        <ele>116.808</ele>
        <time>2018-12-28T17:43:57Z</time>
      </trkpt>
      <trkpt lat="36.921050" lon="-120.830700">
        <ele>113.160</ele>
        <time>2018-12-28T17:44:17Z</time>
      </trkpt>
      <trkpt lat="36.921450" lon="-120.831110">
        <ele>112.328</ele>
        <time>2018-12-28T17:44:37Z</time>
      </trkpt>
      <trkpt lat="36.921760" lon="-120.831420">
        <ele>111.353</ele>
        <time>2018-12-28T17:44:57Z</time>
      </trkpt>
      <trkpt lat="36.922170" lon="-120.831830">
        <ele>110.992</ele>
        <time>2018-12-28T17:45:17Z</time>
      </trkpt>
      <trkpt lat="36.922570" lon="-120.832250">
        <ele>110.886</ele>
        <time>2018-12-28T17:45:37Z</time>
      </trkpt>
      <trkpt lat="36.922870" lon="-120.832560">
        <ele>110.729</ele>
        <time>2018-12-28T17:45:57Z</time>
      </trkpt>
      <trkpt lat="36.923080" lon="-120.832760">
        <ele>110.563</ele>
        <time>2018-12-28T17:46:17Z</time>
      </trkpt>
      <trkpt lat="36.923180" lon="-120.832870">
        <ele>110.576</ele>
        <time>2018-12-28T17:46:37Z</time>
      </trkpt>
      <trkpt lat="36.923480" lon="-120.833180">
        <ele>112.699</ele>
        <time>2018-12-28T17:46:57Z</time>
      </trkpt>
      <trkpt lat="36.923890" lon="-120.833590">
        <ele>112.707</ele>
        <time>2018-12-28T17:47:17Z</time>
      </trkpt>
      <trkpt lat="36.924090" lon="-120.833800">
        <ele>112.427</ele>
        <time>2018-12-28T17:47:37Z</time>
      </trkpt>
      <trkpt lat="36.924480" lon="-120.834190">
        <ele>107.708</ele>
        <time>2018-12-28T17:47:57Z</time>
      </trkpt>
      <trkpt lat="36.924800" lon="-120.834520">
        <ele>104.342</ele>
        <time>2018-12-28T17:48:17Z</time>
      </trkpt>
      <trkpt lat="36.926100" lon="-120.835830">
        <ele>104.360</ele>
        <time>2018-12-28T17:48:37Z</time>
      </trkpt>
      <trkpt lat="36.927530" lon="-120.837290">
        <ele>106.595</ele>
        <time>2018-12-28T17:48:57Z</time>
      </trkpt>
      <trkpt lat="36.928040" lon="-120.837820">
        <ele>108.254</ele>
        <time>2018-12-28T17:49:17Z</time>
      </trkpt>
      <trkpt lat="36.928540" lon="-120.838330">
        <ele>107.918</ele>
        <time>2018-12-28T17:49:37Z</time>
      </trkpt>
      <trkpt lat="36.928690" lon="-120.838510">
        <ele>108.791</ele>
        <time>2018-12-28T17:49:57Z</time>
      </trkpt>
      <trkpt lat="36.929110" lon="-120.838970">
        <ele>109.435</ele>
        <time>2018-12-28T17:50:17Z</time>
      </trkpt>
      <trkpt lat="36.929150" lon="-120.839010">
        <ele>109.218</ele>
        <time>2018-12-28T17:50:37Z</time>
      </trkpt>
      <trkpt lat="36.929410" lon="-120.839290">
        <ele>107.562</ele>
        <time>2018-12-28T17:50:57Z</time>
      </trkpt>
      <trkpt lat="36.929710" lon="-120.839620">
        <ele>107.383</ele>
        <time>2018-12-28T17:51:17Z</time>
      </trkpt>
      <trkpt lat="36.930010" lon="-120.839950">
        <ele>106.511</ele>
        <time>2018-12-28T17:51:37Z</time>
      </trkpt>
      <trkpt lat="36.930440" lon="-120.840430">
        <ele>108.308</ele>
        <time>2018-12-28T17:51:57Z</time>
      </trkpt>
      <trkpt lat="36.930780" lon="-120.840820">
        <ele>110.349</ele>
        <time>2018-12-28T17:52:17Z</time>
      </trkpt>
      <trkpt lat="36.931090" lon="-120.841170">
        <ele>108.387</ele>
        <time>2018-12-28T17:52:37Z</time>
      </trkpt>
      <trkpt lat="36.931360" lon="-120.841480">
        <ele>103.932</ele>
        <time>2018-12-28T17:52:57Z</time>
      </trkpt>
      <trkpt lat="36.931650" lon="-120.841820">
        <ele>102.991</ele>
        <time>2018-12-28T17:53:17Z</time>
      </trkpt>
      <trkpt lat="36.931960" lon="-120.842190">
        <ele>104.065</ele>
        <time>2018-12-28T17:53:37Z</time>
      </trkpt>
      <trkpt lat="36.932210" lon="-120.842490">
        <ele>105.928</ele>
        <time>2018-12-28T17:53:57Z</time>
      </trkpt>
      <trkpt lat="36.933000" lon="-120.843440">
        <ele>106.622</ele>
        <time>2018-12-28T17:54:17Z</time>
      </trkpt>
      <trkpt lat="36.933450" lon="-120.843990">
        <ele>108.485</ele>
        <time>2018-12-28T17:54:37Z</time>
      </trkpt>
      <trkpt lat="36.933810" lon="-120.844430">
        <ele>107.629</ele>
        <time>2018-12-28T17:54:57Z</time>
      </trkpt>
      <trkpt lat="36.934280" lon="-120.845010">
        <ele>106.200</ele>
        <time>2018-12-28T17:55:17Z</time>
      </trkpt>
      <trkpt lat="36.937270" lon="-120.848660">
        <ele>106.420</ele>
        <time>2018-12-28T17:55:37Z</time>
      </trkpt>
      <trkpt lat="36.938860" lon="-120.850600">
        <ele>106.208</ele>
        <time>2018-12-28T17:55:57Z</time>
      </trkpt>
      <trkpt lat="36.939980" lon="-120.851970">
        <ele>105.755</ele>
        <time>2018-12-28T17:56:17Z</time>
      </trkpt>
      <trkpt lat="36.940270" lon="-120.852330">
        <ele>103.133</ele>
        <time>2018-12-28T17:56:37Z</time>
      </trkpt>
      <trkpt lat="36.940450" lon="-120.852560">
        <ele>98.118</ele>
        <time>2018-12-28T17:56:57Z</time>
      </trkpt>
      <trkpt lat="36.940640" lon="-120.852790">
        <ele>100.917</ele>
        <time>2018-12-28T17:57:17Z</time>
      </trkpt>
      <trkpt lat="36.941020" lon="-120.853240">
        <ele>104.221</ele>
        <time>2018-12-28T17:57:37Z</time>
      </trkpt>
      <trkpt lat="36.941580" lon="-120.853930">
        <ele>102.044</ele>
        <time>2018-12-28T17:57:57Z</time>
      </trkpt>
      <trkpt lat="36.942140" lon="-120.854620">
        <ele>99.748</ele>
        <time>2018-12-28T17:58:17Z</time>
      </trkpt>
      <trkpt lat="36.942420" lon="-120.854970">
        <ele>96.991</ele>
        <time>2018-12-28T17:58:37Z</time>
      </trkpt>
      <trkpt lat="36.942610" lon="-120.855200">
        <ele>99.717</ele>
        <time>2018-12-28T17:58:57Z</time>
      </trkpt>
      <trkpt lat="36.942890" lon="-120.855530">
        <ele>100.387</ele>
        <time>2018-12-28T17:59:17Z</time>
      </trkpt>
      <trkpt lat="36.943930" lon="-120.856800">
        <ele>96.915</ele>
        <time>2018-12-28T17:59:37Z</time>
      </trkpt>
      <trkpt lat="36.944300" lon="-120.857250">
        <ele>98.108</ele>
        <time>2018-12-28T17:59:57Z</time>
      </trkpt>
      <trkpt lat="36.944770" lon="-120.857840">
        <ele>96.124</ele>
        <time>2018-12-28T18:00:17Z</time>
      </trkpt>
      <trkpt lat="36.945600" lon="-120.858840">
        <ele>95.792</ele>
        <time>2018-12-28T18:00:37Z</time>
      </trkpt>
      <trkpt lat="36.945890" lon="-120.859210">
        <ele>93.077</ele>
        <time>2018-12-28T18:00:57Z</time>
      </trkpt>
      <trkpt lat="36.946170" lon="-120.859550">
        <ele>93.236</ele>
        <time>2018-12-28T18:01:17Z</time>
      </trkpt>
      <trkpt lat="36.946540" lon="-120.859980">
        <ele>96.960</ele>
        <time>2018-12-28T18:01:37Z</time>
      </trkpt>
      <trkpt lat="36.946920" lon="-120.860450">
        <ele>94.433</ele>
        <time>2018-12-28T18:01:57Z</time>
      </trkpt>
      <trkpt lat="36.947380" lon="-120.861020">
        <ele>91.947</ele>
        <time>2018-12-28T18:02:17Z</time>
      </trkpt>
      <trkpt lat="36.948590" lon="-120.862500">
        <ele>90.920</ele>
        <time>2018-12-28T18:02:37Z</time>
      </trkpt>
      <trkpt lat="36.949060" lon="-120.863060">
        <ele>92.811</ele>
        <time>2018-12-28T18:02:57Z</time>
      </trkpt>
      <trkpt lat="36.949530" lon="-120.863640">
        <ele>90.321</ele>
        <time>2018-12-28T18:03:17Z</time>
      </trkpt>
      <trkpt lat="36.950020" lon="-120.864250">
        <ele>87.603</ele>
        <time>2018-12-28T18:03:37Z</time>
      </trkpt>
      <trkpt lat="36.951590" lon="-120.866170">
        <ele>85.608</ele>
        <time>2018-12-28T18:03:57Z</time>
      </trkpt>
      <trkpt lat="36.951990" lon="-120.866650">
        <ele>86.414</ele>
        <time>2018-12-28T18:04:17Z</time>
      </trkpt>
      <trkpt lat="36.952550" lon="-120.867330">
        <ele>85.872</ele>
        <time>2018-12-28T18:04:37Z</time>
      </trkpt>
      <trkpt lat="36.954120" lon="-120.869260">
        <ele>84.857</ele>
        <time>2018-12-28T18:04:57Z</time>
      </trkpt>
      <trkpt lat="36.954400" lon="-120.869600">
        <ele>84.956</ele>
        <time>2018-12-28T18:05:17Z</time>
      </trkpt>
      <trkpt lat="36.955440" lon="-120.870870">
        <ele>84.160</ele>
        <time>2018-12-28T18:05:37Z</time>
      </trkpt>
      <trkpt lat="36.956190" lon="-120.871780">
        <ele>83.043</ele>
        <time>2018-12-28T18:05:57Z</time>
      </trkpt>
      <trkpt lat="36.956740" lon="-120.872450">
        <ele>80.267</ele>
        <time>2018-12-28T18:06:17Z</time>
      </trkpt>
      <trkpt lat="36.957270" lon="-120.873090">
        <ele>79.630</ele>
        <time>2018-12-28T18:06:37Z</time>
      </trkpt>
      <trkpt lat="36.958600" lon="-120.874730">
        <ele>81.286</ele>
        <time>2018-12-28T18:06:57Z</time>
      </trkpt>
      <trkpt lat="36.958700" lon="-120.874860">
        <ele>81.560</ele>
        <time>2018-12-28T18:07:17Z</time>
      </trkpt>
      <trkpt lat="36.959070" lon="-120.875320">
        <ele>83.726</ele>
        <time>2018-12-28T18:07:37Z</time>
      </trkpt>
      <trkpt lat="36.959350" lon="-120.875660">
        <ele>83.008</ele>
        <time>2018-12-28T18:07:57Z</time>
      </trkpt>
      <trkpt lat="36.962150" lon="-120.879080">
        <ele>86.331</ele>
        <time>2018-12-28T18:08:17Z</time>
      </trkpt>
      <trkpt lat="36.965710" lon="-120.883440">
        <ele>87.869</ele>
        <time>2018-12-28T18:08:37Z</time>
      </trkpt>
      <trkpt lat="36.967030" lon="-120.885050">
        <ele>86.964</ele>
        <time>2018-12-28T18:08:57Z</time>
      </trkpt>
      <trkpt lat="36.967500" lon="-120.885630">
        <ele>87.463</ele>
        <time>2018-12-28T18:09:17Z</time>
      </trkpt>
      <trkpt lat="36.967970" lon="-120.886200">
        <ele>87.417</ele>
        <time>2018-12-28T18:09:37Z</time>
      </trkpt>
      <trkpt lat="36.968530" lon="-120.886880">
        <ele>88.210</ele>
        <time>2018-12-28T18:09:57Z</time>
      </trkpt>
      <trkpt lat="36.968760" lon="-120.887150">
        <ele>88.724</ele>
        <time>2018-12-28T18:10:17Z</time>
      </trkpt>
      <trkpt lat="36.969130" lon="-120.887570">
        <ele>87.867</ele>
        <time>2018-12-28T18:10:37Z</time>
      </trkpt>
      <trkpt lat="36.969400" lon="-120.887880">
        <ele>86.059</ele>
        <time>2018-12-28T18:10:57Z</time>
      </trkpt>
      <trkpt lat="36.969950" lon="-120.888460">
        <ele>85.403</ele>
        <time>2018-12-28T18:11:17Z</time>
      </trkpt>
      <trkpt lat="36.970230" lon="-120.888740">
        <ele>85.323</ele>
        <time>2018-12-28T18:11:37Z</time>
      </trkpt>
      <trkpt lat="36.970600" lon="-120.889100">
        <ele>85.408</ele>
        <time>2018-12-28T18:11:57Z</time>
      </trkpt>
      <trkpt lat="36.970800" lon="-120.889300">
        <ele>85.378</ele>
        <time>2018-12-28T18:12:17Z</time>
      </trkpt>
      <trkpt lat="36.971020" lon="-120.889510">
        <ele>85.776</ele>
        <time>2018-12-28T18:12:37Z</time>
      </trkpt>
      <trkpt lat="36.971220" lon="-120.889690">
        <ele>86.231</ele>
        <time>2018-12-28T18:12:57Z</time>
      </trkpt>
      <trkpt lat="36.971430" lon="-120.889880">
        <ele>86.370</ele>
        <time>2018-12-28T18:13:17Z</time>
      </trkpt>
      <trkpt lat="36.971650" lon="-120.890080">
        <ele>86.314</ele>
        <time>2018-12-28T18:13:37Z</time>
      </trkpt>
      <trkpt lat="36.971750" lon="-120.890170">
        <ele>86.267</ele>
        <time>2018-12-28T18:13:57Z</time>
      </trkpt>
      <trkpt lat="36.971860" lon="-120.890260">
        <ele>86.191</ele>
        <time>2018-12-28T18:14:17Z</time>
      </trkpt>
      <trkpt lat="36.972130" lon="-120.890500">
        <ele>85.714</ele>
        <time>2018-12-28T18:14:37Z</time>
      </trkpt>
      <trkpt lat="36.973780" lon="-120.891940">
        <ele>85.971</ele>
        <time>2018-12-28T18:14:57Z</time>
      </trkpt>
      <trkpt lat="36.976590" lon="-120.894400">
        <ele>86.241</ele>
        <time>2018-12-28T18:15:17Z</time>
      </trkpt>
      <trkpt lat="36.977620" lon="-120.895300">
        <ele>81.815</ele>
        <time>2018-12-28T18:15:37Z</time>
      </trkpt>
      <trkpt lat="36.978740" lon="-120.896280">
        <ele>84.508</ele>
        <time>2018-12-28T18:15:57Z</time>
      </trkpt>
      <trkpt lat="36.980220" lon="-120.897570">
        <ele>86.080</ele>
        <time>2018-12-28T18:16:17Z</time>
      </trkpt>
      <trkpt lat="36.980350" lon="-120.897680">
        <ele>86.328</ele>
        <time>2018-12-28T18:16:37Z</time>
      </trkpt>
      <trkpt lat="36.980570" lon="-120.897870">
        <ele>87.053</ele>
        <time>2018-12-28T18:16:57Z</time>
      </trkpt>
      <trkpt lat="36.981110" lon="-120.898350">
        <ele>88.032</ele>
        <time>2018-12-28T18:17:17Z</time>
      </trkpt>
      <trkpt lat="36.981540" lon="-120.898730">
        <ele>87.316</ele>
        <time>2018-12-28T18:17:37Z</time>
      </trkpt>
      <trkpt lat="36.981860" lon="-120.899000">
        <ele>87.729</ele>
        <time>2018-12-28T18:17:57Z</time>
      </trkpt>
      <trkpt lat="36.982170" lon="-120.899280">
        <ele>87.773</ele>
        <time>2018-12-28T18:18:17Z</time>
      </trkpt>
      <trkpt lat="36.982500" lon="-120.899570">
        <ele>86.186</ele>
        <time>2018-12-28T18:18:37Z</time>
      </trkpt>
      <trkpt lat="36.983150" lon="-120.900130">
        <ele>85.511</ele>
        <time>2018-12-28T18:18:57Z</time>
      </trkpt>
      <trkpt lat="36.983470" lon="-120.900420">
        <ele>86.521</ele>
        <time>2018-12-28T18:19:17Z</time>
      </trkpt>
      <trkpt lat="36.983680" lon="-120.900600">
        <ele>87.703</ele>
        <time>2018-12-28T18:19:37Z</time>
      </trkpt>
      <trkpt lat="36.984110" lon="-120.900970">
        <ele>90.108</ele>
        <time>2018-12-28T18:19:57Z</time>
      </trkpt>
      <trkpt lat="36.984740" lon="-120.901520">
        <ele>91.324</ele>
        <time>2018-12-28T18:20:17Z</time>
      </trkpt>
      <trkpt lat="36.985280" lon="-120.901990">
        <ele>90.732</ele>
        <time>2018-12-28T18:20:37Z</time>
      </trkpt>
      <trkpt lat="36.986230" lon="-120.902830">
        <ele>89.077</ele>
        <time>2018-12-28T18:20:57Z</time>
      </trkpt>
      <trkpt lat="36.986360" lon="-120.902940">
        <ele>88.086</ele>
        <time>2018-12-28T18:21:17Z</time>
      </trkpt>
      <trkpt lat="36.986890" lon="-120.903430">
        <ele>81.290</ele>
        <time>2018-12-28T18:21:37Z</time>
      </trkpt>
      <trkpt lat="36.987080" lon="-120.903590">
        <ele>82.543</ele>
        <time>2018-12-28T18:21:57Z</time>
      </trkpt>
      <trkpt lat="36.988400" lon="-120.904730">
        <ele>89.847</ele>
        <time>2018-12-28T18:22:17Z</time>
      </trkpt>
      <trkpt lat="36.989030" lon="-120.905280">
        <ele>88.630</ele>
        <time>2018-12-28T18:22:37Z</time>
      </trkpt>
      <trkpt lat="36.989690" lon="-120.905860">
        <ele>87.193</ele>
        <time>2018-12-28T18:22:57Z</time>
      </trkpt>
      <trkpt lat="36.989790" lon="-120.905950">
        <ele>87.265</ele>
        <time>2018-12-28T18:23:17Z</time>
      </trkpt>
      <trkpt lat="36.990960" lon="-120.906980">
        <ele>89.921</ele>
        <time>2018-12-28T18:23:37Z</time>
      </trkpt>
      <trkpt lat="36.991780" lon="-120.907690">
        <ele>90.308</ele>
        <time>2018-12-28T18:23:57Z</time>
      </trkpt>
      <trkpt lat="36.992170" lon="-120.908010">
        <ele>89.982</ele>
        <time>2018-12-28T18:24:17Z</time>
      </trkpt>
      <trkpt lat="36.992650" lon="-120.908410">
        <ele>90.330</ele>
        <time>2018-12-28T18:24:37Z</time>
      </trkpt>
      <trkpt lat="36.993440" lon="-120.909100">
        <ele>90.945</ele>
        <time>2018-12-28T18:24:57Z</time>
      </trkpt>
      <trkpt lat="36.993910" lon="-120.909530">
        <ele>82.374</ele>
        <time>2018-12-28T18:25:17Z</time>
      </trkpt>
      <trkpt lat="36.994140" lon="-120.909760">
        <ele>76.038</ele>
        <time>2018-12-28T18:25:37Z</time>
      </trkpt>
      <trkpt lat="36.994720" lon="-120.910270">
        <ele>73.271</ele>
        <time>2018-12-28T18:25:57Z</time>
      </trkpt>
      <trkpt lat="36.995410" lon="-120.910860">
        <ele>71.515</ele>
        <time>2018-12-28T18:26:17Z</time>
      </trkpt>
      <trkpt lat="36.996250" lon="-120.911600">
        <ele>70.338</ele>
        <time>2018-12-28T18:26:37Z</time>
      </trkpt>
      <trkpt lat="36.997240" lon="-120.912470">
        <ele>67.757</ele>
        <time>2018-12-28T18:26:57Z</time>
      </trkpt>
      <trkpt lat="36.997520" lon="-120.912710">
        <ele>66.800</ele>
        <time>2018-12-28T18:27:17Z</time>
      </trkpt>
      <trkpt lat="36.998340" lon="-120.913430">
        <ele>64.520</ele>
        <time>2018-12-28T18:27:37Z</time>
      </trkpt>
      <trkpt lat="36.998500" lon="-120.913570">
        <ele>64.408</ele>
        <time>2018-12-28T18:27:57Z</time>
      </trkpt>
      <trkpt lat="36.998890" lon="-120.913920">
        <ele>64.378</ele>
        <time>2018-12-28T18:28:17Z</time>
      </trkpt>
      <trkpt lat="36.999300" lon="-120.914270">
        <ele>64.576</ele>
        <time>2018-12-28T18:28:37Z</time>
      </trkpt>
      <trkpt lat="36.999590" lon="-120.914520">
        <ele>64.811</ele>
        <time>2018-12-28T18:28:57Z</time>
      </trkpt>
      <trkpt lat="36.999980" lon="-120.914870">
        <ele>65.320</ele>
        <time>2018-12-28T18:29:17Z</time>
      </trkpt>
      <trkpt lat="37.000390" lon="-120.915230">
        <ele>65.224</ele>
        <time>2018-12-28T18:29:37Z</time>
      </trkpt>
      <trkpt lat="37.000790" lon="-120.915580">
        <ele>65.327</ele>
        <time>2018-12-28T18:29:57Z</time>
      </trkpt>
      <trkpt lat="37.001280" lon="-120.916010">
        <ele>68.511</ele>
        <time>2018-12-28T18:30:17Z</time>
      </trkpt>
      <trkpt lat="37.001800" lon="-120.916480">
        <ele>68.534</ele>
        <time>2018-12-28T18:30:37Z</time>
      </trkpt>
      <trkpt lat="37.002060" lon="-120.916720">
        <ele>68.741</ele>
        <time>2018-12-28T18:30:57Z</time>
      </trkpt>
      <trkpt lat="37.002350" lon="-120.916990">
        <ele>69.081</ele>
        <time>2018-12-28T18:31:17Z</time>
      </trkpt>
      <trkpt lat="37.002750" lon="-120.917360">
        <ele>69.509</ele>
        <time>2018-12-28T18:31:37Z</time>
      </trkpt>
      <trkpt lat="37.003070" lon="-120.917660">
        <ele>70.008</ele>
        <time>2018-12-28T18:31:57Z</time>
      </trkpt>
      <trkpt lat="37.003750" lon="-120.918310">
        <ele>71.297</ele>
        <time>2018-12-28T18:32:17Z</time>
      </trkpt>
      <trkpt lat="37.004170" lon="-120.918720">
        <ele>71.675</ele>
        <time>2018-12-28T18:32:37Z</time>
      </trkpt>
      <trkpt lat="37.004540" lon="-120.919080">
        <ele>72.080</ele>
        <time>2018-12-28T18:32:57Z</time>
      </trkpt>
      <trkpt lat="37.005300" lon="-120.919820">
        <ele>72.889</ele>
        <time>2018-12-28T18:33:17Z</time>
      </trkpt>
      <trkpt lat="37.005950" lon="-120.920450">
        <ele>73.333</ele>
        <time>2018-12-28T18:33:37Z</time>
      </trkpt>
      <trkpt lat="37.006560" lon="-120.921040">
        <ele>73.826</ele>
        <time>2018-12-28T18:33:57Z</time>
      </trkpt>
      <trkpt lat="37.007100" lon="-120.921560">
        <ele>76.040</ele>
        <time>2018-12-28T18:34:17Z</time>
      </trkpt>
      <trkpt lat="37.007730" lon="-120.922190">
        <ele>85.613</ele>
        <time>2018-12-28T18:34:37Z</time>
      </trkpt>
      <trkpt lat="37.008340" lon="-120.922820">
        <ele>92.382</ele>
        <time>2018-12-28T18:34:57Z</time>
      </trkpt>
      <trkpt lat="37.008830" lon="-120.923280">
        <ele>91.443</ele>
        <time>2018-12-28T18:35:17Z</time>
      </trkpt>
      <trkpt lat="37.009520" lon="-120.923920">
        <ele>91.017</ele>
        <time>2018-12-28T18:35:37Z</time>
      </trkpt>
      <trkpt lat="37.010160" lon="-120.924540">
        <ele>91.408</ele>
        <time>2018-12-28T18:35:57Z</time>
      </trkpt>
      <trkpt lat="37.010750" lon="-120.925110">
        <ele>91.851</ele>
        <time>2018-12-28T18:36:17Z</time>
      </trkpt>
      <trkpt lat="37.011330" lon="-120.925660">
        <ele>92.029</ele>
        <time>2018-12-28T18:36:37Z</time>
      </trkpt>
      <trkpt lat="37.011860" lon="-120.926180">
        <ele>92.684</ele>
        <time>2018-12-28T18:36:57Z</time>
      </trkpt>
      <trkpt lat="37.012670" lon="-120.926970">
        <ele>92.873</ele>
        <time>2018-12-28T18:37:17Z</time>
      </trkpt>
      <trkpt lat="37.013280" lon="-120.927560">
        <ele>91.647</ele>
        <time>2018-12-28T18:37:37Z</time>
      </trkpt>
      <trkpt lat="37.014010" lon="-120.928230">
        <ele>86.470</ele>
        <time>2018-12-28T18:37:57Z</time>
      </trkpt>
      <trkpt lat="37.014540" lon="-120.928720">
        <ele>82.364</ele>
        <time>2018-12-28T18:38:17Z</time>
      </trkpt>
      <trkpt lat="37.014960" lon="-120.929120">
        <ele>80.567</ele>
        <time>2018-12-28T18:38:37Z</time>
      </trkpt>
      <trkpt lat="37.015470" lon="-120.929600">
        <ele>77.286</ele>
        <time>2018-12-28T18:38:57Z</time>
      </trkpt>
      <trkpt lat="37.015920" lon="-120.930030">
        <ele>76.660</ele>
        <time>2018-12-28T18:39:17Z</time>
      </trkpt>
      <trkpt lat="37.016510" lon="-120.930620">
        <ele>80.126</ele>
        <time>2018-12-28T18:39:37Z</time>
      </trkpt>
      <trkpt lat="37.016900" lon="-120.931010">
        <ele>81.508</ele>
        <time>2018-12-28T18:39:57Z</time>
      </trkpt>
      <trkpt lat="37.017440" lon="-120.931550">
        <ele>85.791</ele>
        <time>2018-12-28T18:40:17Z</time>
      </trkpt>
      <trkpt lat="37.017950" lon="-120.932060">
        <ele>89.399</ele>
        <time>2018-12-28T18:40:37Z</time>
      </trkpt>
      <trkpt lat="37.018320" lon="-120.932420">
        <ele>90.884</ele>
        <time>2018-12-28T18:40:57Z</time>
      </trkpt>
      <trkpt lat="37.019140" lon="-120.933210">
        <ele>90.853</ele>
        <time>2018-12-28T18:41:17Z</time>
      </trkpt>
      <trkpt lat="37.019630" lon="-120.933680">
        <ele>90.037</ele>
        <time>2018-12-28T18:41:37Z</time>
      </trkpt>
      <trkpt lat="37.020190" lon="-120.934230">
        <ele>89.230</ele>
        <time>2018-12-28T18:41:57Z</time>
      </trkpt>
      <trkpt lat="37.020770" lon="-120.934780">
        <ele>84.344</ele>
        <time>2018-12-28T18:42:17Z</time>
      </trkpt>
      <trkpt lat="37.021500" lon="-120.935470">
        <ele>80.417</ele>
        <time>2018-12-28T18:42:37Z</time>
      </trkpt>
      <trkpt lat="37.022040" lon="-120.936000">
        <ele>83.318</ele>
        <time>2018-12-28T18:42:57Z</time>
      </trkpt>
      <trkpt lat="37.022590" lon="-120.936540">
        <ele>86.098</ele>
        <time>2018-12-28T18:43:17Z</time>
      </trkpt>
      <trkpt lat="37.023110" lon="-120.937040">
        <ele>81.917</ele>
        <time>2018-12-28T18:43:37Z</time>
      </trkpt>
      <trkpt lat="37.023840" lon="-120.937740">
        <ele>80.708</ele>
        <time>2018-12-28T18:43:57Z</time>
      </trkpt>
      <trkpt lat="37.024530" lon="-120.938410">
        <ele>81.624</ele>
        <time>2018-12-28T18:44:17Z</time>
      </trkpt>
      <trkpt lat="37.025240" lon="-120.939100">
        <ele>83.082</ele>
        <time>2018-12-28T18:44:37Z</time>
      </trkpt>
      <trkpt lat="37.025510" lon="-120.939370">
        <ele>85.617</ele>
        <time>2018-12-28T18:44:57Z</time>
      </trkpt>
      <trkpt lat="37.026240" lon="-120.940090">
        <ele>90.086</ele>
        <time>2018-12-28T18:45:17Z</time>
      </trkpt>
      <trkpt lat="37.027130" lon="-120.940940">
        <ele>88.870</ele>
        <time>2018-12-28T18:45:37Z</time>
      </trkpt>
      <trkpt lat="37.027600" lon="-120.941390">
        <ele>85.933</ele>
        <time>2018-12-28T18:45:57Z</time>
      </trkpt>
      <trkpt lat="37.028210" lon="-120.941960">
        <ele>76.577</ele>
        <time>2018-12-28T18:46:17Z</time>
      </trkpt>
      <trkpt lat="37.028630" lon="-120.942370">
        <ele>77.450</ele>
        <time>2018-12-28T18:46:37Z</time>
      </trkpt>
      <trkpt lat="37.028930" lon="-120.942660">
        <ele>79.175</ele>
        <time>2018-12-28T18:46:57Z</time>
      </trkpt>
      <trkpt lat="37.029040" lon="-120.942770">
        <ele>79.428</ele>
        <time>2018-12-28T18:47:17Z</time>
      </trkpt>
      <trkpt lat="37.029760" lon="-120.943480">
        <ele>88.520</ele>
        <time>2018-12-28T18:47:37Z</time>
      </trkpt>
      <trkpt lat="37.030760" lon="-120.944440">
        <ele>81.908</ele>
        <time>2018-12-28T18:47:57Z</time>
      </trkpt>
      <trkpt lat="37.031550" lon="-120.945200">
        <ele>85.580</ele>
        <time>2018-12-28T18:48:17Z</time>
      </trkpt>
      <trkpt lat="37.032210" lon="-120.945840">
        <ele>91.568</ele>
        <time>2018-12-28T18:48:37Z</time>
      </trkpt>
      <trkpt lat="37.033120" lon="-120.946720">
        <ele>85.733</ele>
        <time>2018-12-28T18:48:57Z</time>
      </trkpt>
      <trkpt lat="37.033910" lon="-120.947490">
        <ele>87.132</ele>
        <time>2018-12-28T18:49:17Z</time>
      </trkpt>
      <trkpt lat="37.034480" lon="-120.948040">
        <ele>78.436</ele>
        <time>2018-12-28T18:49:37Z</time>
      </trkpt>
      <trkpt lat="37.035460" lon="-120.948990">
        <ele>82.869</ele>
        <time>2018-12-28T18:49:57Z</time>
      </trkpt>
      <trkpt lat="37.036230" lon="-120.949740">
        <ele>86.853</ele>
        <time>2018-12-28T18:50:17Z</time>
      </trkpt>
      <trkpt lat="37.036850" lon="-120.950340">
        <ele>90.426</ele>
        <time>2018-12-28T18:50:37Z</time>
      </trkpt>
      <trkpt lat="37.037420" lon="-120.950890">
        <ele>87.087</ele>
        <time>2018-12-28T18:50:57Z</time>
      </trkpt>
      <trkpt lat="37.038250" lon="-120.951680">
        <ele>74.942</ele>
        <time>2018-12-28T18:51:17Z</time>
      </trkpt>
      <trkpt lat="37.038970" lon="-120.952390">
        <ele>79.726</ele>
        <time>2018-12-28T18:51:37Z</time>
      </trkpt>
      <trkpt lat="37.040070" lon="-120.953440">
        <ele>86.508</ele>
        <time>2018-12-28T18:51:57Z</time>
      </trkpt>
      <trkpt lat="37.041040" lon="-120.954390">
        <ele>81.511</ele>
        <time>2018-12-28T18:52:17Z</time>
      </trkpt>
      <trkpt lat="37.041680" lon="-120.955010">
        <ele>82.419</ele>
        <time>2018-12-28T18:52:37Z</time>
      </trkpt>
      <trkpt lat="37.042390" lon="-120.955700">
        <ele>80.334</ele>
        <time>2018-12-28T18:52:57Z</time>
      </trkpt>
      <trkpt lat="37.043350" lon="-120.956620">
        <ele>79.323</ele>
        <time>2018-12-28T18:53:17Z</time>
      </trkpt>
      <trkpt lat="37.044240" lon="-120.957490">
        <ele>79.727</ele>
        <time>2018-12-28T18:53:37Z</time>
      </trkpt>
      <trkpt lat="37.044930" lon="-120.958150">
        <ele>80.730</ele>
        <time>2018-12-28T18:53:57Z</time>
      </trkpt>
      <trkpt lat="37.046860" lon="-120.960020">
        <ele>75.194</ele>
        <time>2018-12-28T18:54:17Z</time>
      </trkpt>
      <trkpt lat="37.047200" lon="-120.960350">
        <ele>67.767</ele>
        <time>2018-12-28T18:54:37Z</time>
      </trkpt>
      <trkpt lat="37.047540" lon="-120.960690">
        <ele>67.697</ele>
        <time>2018-12-28T18:54:57Z</time>
      </trkpt>
      <trkpt lat="37.048230" lon="-120.961350">
        <ele>70.523</ele>
        <time>2018-12-28T18:55:17Z</time>
      </trkpt>
      <trkpt lat="37.049130" lon="-120.962200">
        <ele>78.225</ele>
        <time>2018-12-28T18:55:37Z</time>
      </trkpt>
      <trkpt lat="37.051750" lon="-120.964760">
        <ele>75.308</ele>
        <time>2018-12-28T18:55:57Z</time>
      </trkpt>
      <trkpt lat="37.052800" lon="-120.965770">
        <ele>76.812</ele>
        <time>2018-12-28T18:56:17Z</time>
      </trkpt>
      <trkpt lat="37.053470" lon="-120.966420">
        <ele>76.880</ele>
        <time>2018-12-28T18:56:37Z</time>
      </trkpt>
      <trkpt lat="37.053600" lon="-120.966540">
        <ele>76.755</ele>
        <time>2018-12-28T18:56:57Z</time>
      </trkpt>
      <trkpt lat="37.053830" lon="-120.966770">
        <ele>75.944</ele>
        <time>2018-12-28T18:57:17Z</time>
      </trkpt>
      <trkpt lat="37.054160" lon="-120.967090">
        <ele>74.638</ele>
        <time>2018-12-28T18:57:37Z</time>
      </trkpt>
      <trkpt lat="37.055700" lon="-120.968590">
        <ele>74.331</ele>
        <time>2018-12-28T18:57:57Z</time>
      </trkpt>
      <trkpt lat="37.056130" lon="-120.969020">
        <ele>72.675</ele>
        <time>2018-12-28T18:58:17Z</time>
      </trkpt>
      <trkpt lat="37.056160" lon="-120.969040">
        <ele>72.368</ele>
        <time>2018-12-28T18:58:37Z</time>
      </trkpt>
      <trkpt lat="37.056190" lon="-120.969070">
        <ele>71.914</ele>
        <time>2018-12-28T18:58:57Z</time>
      </trkpt>
      <trkpt lat="37.056280" lon="-120.969160">
        <ele>71.554</ele>
        <time>2018-12-28T18:59:17Z</time>
      </trkpt>
      <trkpt lat="37.056340" lon="-120.969210">
        <ele>71.509</ele>
        <time>2018-12-28T18:59:37Z</time>
      </trkpt>
      <trkpt lat="37.056950" lon="-120.969780">
        <ele>73.108</ele>
        <time>2018-12-28T18:59:57Z</time>
      </trkpt>
      <trkpt lat="37.057130" lon="-120.969980">
        <ele>73.414</ele>
        <time>2018-12-28T19:00:17Z</time>
      </trkpt>
      <trkpt lat="37.057690" lon="-120.970520">
        <ele>73.712</ele>
        <time>2018-12-28T19:00:37Z</time>
      </trkpt>
      <trkpt lat="37.058330" lon="-120.971140">
        <ele>73.517</ele>
        <time>2018-12-28T19:00:57Z</time>
      </trkpt>
      <trkpt lat="37.058640" lon="-120.971450">
        <ele>69.186</ele>
        <time>2018-12-28T19:01:17Z</time>
      </trkpt>
      <trkpt lat="37.058960" lon="-120.971780">
        <ele>65.180</ele>
        <time>2018-12-28T19:01:37Z</time>
      </trkpt>
      <trkpt lat="37.059370" lon="-120.972170">
        <ele>63.643</ele>
        <time>2018-12-28T19:01:57Z</time>
      </trkpt>
      <trkpt lat="37.059460" lon="-120.972250">
        <ele>64.037</ele>
        <time>2018-12-28T19:02:17Z</time>
      </trkpt>
      <trkpt lat="37.059820" lon="-120.972600">
        <ele>66.450</ele>
        <time>2018-12-28T19:02:37Z</time>
      </trkpt>
      <trkpt lat="37.060390" lon="-120.973140">
        <ele>70.357</ele>
        <time>2018-12-28T19:02:57Z</time>
      </trkpt>
      <trkpt lat="37.060700" lon="-120.973430">
        <ele>71.600</ele>
        <time>2018-12-28T19:03:17Z</time>
      </trkpt>
      <trkpt lat="37.061010" lon="-120.973720">
        <ele>72.820</ele>
        <time>2018-12-28T19:03:37Z</time>
      </trkpt>
      <trkpt lat="37.061640" lon="-120.974330">
        <ele>70.408</ele>
        <time>2018-12-28T19:03:57Z</time>
      </trkpt>
      <trkpt lat="37.062150" lon="-120.974840">
        <ele>67.998</ele>
        <time>2018-12-28T19:04:17Z</time>
      </trkpt>
      <trkpt lat="37.062870" lon="-120.975520">
        <ele>71.696</ele>
        <time>2018-12-28T19:04:37Z</time>
      </trkpt>
      <trkpt lat="37.063130" lon="-120.975770">
        <ele>71.591</ele>
        <time>2018-12-28T19:04:57Z</time>
      </trkpt>
      <trkpt lat="37.063690" lon="-120.976310">
        <ele>71.160</ele>
        <time>2018-12-28T19:05:17Z</time>
      </trkpt>
      <trkpt lat="37.063910" lon="-120.976530">
        <ele>71.154</ele>
        <time>2018-12-28T19:05:37Z</time>
      </trkpt>
      <trkpt lat="37.064400" lon="-120.977010">
        <ele>71.137</ele>
        <time>2018-12-28T19:05:57Z</time>
      </trkpt>
      <trkpt lat="37.064530" lon="-120.977140">
        <ele>71.121</ele>
        <time>2018-12-28T19:06:17Z</time>
      </trkpt>
      <trkpt lat="37.064840" lon="-120.977440">
        <ele>71.124</ele>
        <time>2018-12-28T19:06:37Z</time>
      </trkpt>
      <trkpt lat="37.065260" lon="-120.977850">
        <ele>71.612</ele>
        <time>2018-12-28T19:06:57Z</time>
      </trkpt>
      <trkpt lat="37.065670" lon="-120.978240">
        <ele>71.432</ele>
        <time>2018-12-28T19:07:17Z</time>
      </trkpt>
      <trkpt lat="37.066080" lon="-120.978640">
        <ele>70.905</ele>
        <time>2018-12-28T19:07:37Z</time>
      </trkpt>
      <trkpt lat="37.066470" lon="-120.979000">
        <ele>68.108</ele>
        <time>2018-12-28T19:07:57Z</time>
      </trkpt>
      <trkpt lat="37.066640" lon="-120.979150">
        <ele>66.264</ele>
        <time>2018-12-28T19:08:17Z</time>
      </trkpt>
      <trkpt lat="37.066750" lon="-120.979250">
        <ele>65.212</ele>
        <time>2018-12-28T19:08:37Z</time>
      </trkpt>
      <trkpt lat="37.066980" lon="-120.979470">
        <ele>65.827</ele>
        <time>2018-12-28T19:08:57Z</time>
      </trkpt>
      <trkpt lat="37.067300" lon="-120.979790">
        <ele>67.676</ele>
        <time>2018-12-28T19:09:17Z</time>
      </trkpt>
      <trkpt lat="37.067630" lon="-120.980110">
        <ele>68.070</ele>
        <time>2018-12-28T19:09:37Z</time>
      </trkpt>
      <trkpt lat="37.067930" lon="-120.980420">
        <ele>68.033</ele>
        <time>2018-12-28T19:09:57Z</time>
      </trkpt>
      <trkpt lat="37.068140" lon="-120.980620">
        <ele>68.167</ele>
        <time>2018-12-28T19:10:17Z</time>
      </trkpt>
      <trkpt lat="37.068540" lon="-120.981020">
        <ele>68.510</ele>
        <time>2018-12-28T19:10:37Z</time>
      </trkpt>
      <trkpt lat="37.068980" lon="-120.981450">
        <ele>68.575</ele>
        <time>2018-12-28T19:10:57Z</time>
      </trkpt>
      <trkpt lat="37.069190" lon="-120.981660">
        <ele>68.128</ele>
        <time>2018-12-28T19:11:17Z</time>
      </trkpt>
      <trkpt lat="37.069360" lon="-120.981820">
        <ele>66.220</ele>
        <time>2018-12-28T19:11:37Z</time>
      </trkpt>
      <trkpt lat="37.069570" lon="-120.982000">
        <ele>60.608</ele>
        <time>2018-12-28T19:11:57Z</time>
      </trkpt>
      <trkpt lat="37.069790" lon="-120.982200">
        <ele>57.630</ele>
        <time>2018-12-28T19:12:17Z</time>
      </trkpt>
      <trkpt lat="37.070310" lon="-120.982710">
        <ele>58.078</ele>
        <time>2018-12-28T19:12:37Z</time>
      </trkpt>
      <trkpt lat="37.070610" lon="-120.983010">
        <ele>59.563</ele>
        <time>2018-12-28T19:12:57Z</time>
      </trkpt>
      <trkpt lat="37.071130" lon="-120.983550">
        <ele>63.972</ele>
        <time>2018-12-28T19:13:17Z</time>
      </trkpt>
      <trkpt lat="37.071750" lon="-120.984160">
        <ele>66.456</ele>
        <time>2018-12-28T19:13:37Z</time>
      </trkpt>
      <trkpt lat="37.072060" lon="-120.984460">
        <ele>66.219</ele>
        <time>2018-12-28T19:13:57Z</time>
      </trkpt>
      <trkpt lat="37.072590" lon="-120.984960">
        <ele>65.713</ele>
        <time>2018-12-28T19:14:17Z</time>
      </trkpt>
      <trkpt lat="37.073060" lon="-120.985420">
        <ele>65.136</ele>
        <time>2018-12-28T19:14:37Z</time>
      </trkpt>
      <trkpt lat="37.073430" lon="-120.985780">
        <ele>65.052</ele>
        <time>2018-12-28T19:14:57Z</time>
      </trkpt>
      <trkpt lat="37.073820" lon="-120.986160">
        <ele>64.753</ele>
        <time>2018-12-28T19:15:17Z</time>
      </trkpt>
      <trkpt lat="37.074250" lon="-120.986570">
        <ele>63.908</ele>
        <time>2018-12-28T19:15:37Z</time>
      </trkpt>
      <trkpt lat="37.074660" lon="-120.986970">
        <ele>62.308</ele>
        <time>2018-12-28T19:15:57Z</time>
      </trkpt>
      <trkpt lat="37.074960" lon="-120.987250">
        <ele>60.218</ele>
        <time>2018-12-28T19:16:17Z</time>
      </trkpt>
      <trkpt lat="37.075270" lon="-120.987550">
        <ele>59.786</ele>
        <time>2018-12-28T19:16:37Z</time>
      </trkpt>
      <trkpt lat="37.075690" lon="-120.987960">
        <ele>61.961</ele>
        <time>2018-12-28T19:16:57Z</time>
      </trkpt>
      <trkpt lat="37.076100" lon="-120.988350">
        <ele>61.220</ele>
        <time>2018-12-28T19:17:17Z</time>
      </trkpt>
      <trkpt lat="37.076810" lon="-120.989040">
        <ele>59.154</ele>
        <time>2018-12-28T19:17:37Z</time>
      </trkpt>
      <trkpt lat="37.077170" lon="-120.989380">
        <ele>57.727</ele>
        <time>2018-12-28T19:17:57Z</time>
      </trkpt>
      <trkpt lat="37.077590" lon="-120.989780">
        <ele>55.631</ele>
        <time>2018-12-28T19:18:17Z</time>
      </trkpt>
      <trkpt lat="37.077720" lon="-120.989910">
        <ele>55.524</ele>
        <time>2018-12-28T19:18:37Z</time>
      </trkpt>
      <trkpt lat="37.077850" lon="-120.990040">
        <ele>55.564</ele>
        <time>2018-12-28T19:18:57Z</time>
      </trkpt>
      <trkpt lat="37.079710" lon="-120.991840">
        <ele>53.806</ele>
        <time>2018-12-28T19:19:17Z</time>
      </trkpt>
      <trkpt lat="37.080320" lon="-120.992430">
        <ele>53.216</ele>
        <time>2018-12-28T19:19:37Z</time>
      </trkpt>
      <trkpt lat="37.080530" lon="-120.992630">
        <ele>53.408</ele>
        <time>2018-12-28T19:19:57Z</time>
      </trkpt>
      <trkpt lat="37.080740" lon="-120.992840">
        <ele>53.349</ele>
        <time>2018-12-28T19:20:17Z</time>
      </trkpt>
      <trkpt lat="37.081370" lon="-120.993450">
        <ele>52.427</ele>
        <time>2018-12-28T19:20:37Z</time>
      </trkpt>
      <trkpt lat="37.081790" lon="-120.993860">
        <ele>51.232</ele>
        <time>2018-12-28T19:20:57Z</time>
      </trkpt>
      <trkpt lat="37.081990" lon="-120.994060">
        <ele>50.871</ele>
        <time>2018-12-28T19:21:17Z</time>
      </trkpt>
      <trkpt lat="37.082920" lon="-120.994960">
        <ele>49.645</ele>
        <time>2018-12-28T19:21:37Z</time>
      </trkpt>
      <trkpt lat="37.083540" lon="-120.995560">
        <ele>49.238</ele>
        <time>2018-12-28T19:21:57Z</time>
      </trkpt>
      <trkpt lat="37.084170" lon="-120.996170">
        <ele>49.322</ele>
        <time>2018-12-28T19:22:17Z</time>
      </trkpt>
      <trkpt lat="37.084790" lon="-120.996780">
        <ele>49.155</ele>
        <time>2018-12-28T19:22:37Z</time>
      </trkpt>
      <trkpt lat="37.085320" lon="-120.997280">
        <ele>48.935</ele>
        <time>2018-12-28T19:22:57Z</time>
      </trkpt>
      <trkpt lat="37.085820" lon="-120.997780">
        <ele>48.686</ele>
        <time>2018-12-28T19:23:17Z</time>
      </trkpt>
      <trkpt lat="37.086250" lon="-120.998190">
        <ele>48.414</ele>
        <time>2018-12-28T19:23:37Z</time>
      </trkpt>
      <trkpt lat="37.086650" lon="-120.998580">
        <ele>48.208</ele>
        <time>2018-12-28T19:23:57Z</time>
      </trkpt>
      <trkpt lat="37.087160" lon="-120.999070">
        <ele>48.076</ele>
        <time>2018-12-28T19:24:17Z</time>
      </trkpt>
      <trkpt lat="37.087900" lon="-120.999790">
        <ele>47.584</ele>
        <time>2018-12-28T19:24:37Z</time>
      </trkpt>
      <trkpt lat="37.088520" lon="-121.000390">
        <ele>47.389</ele>
        <time>2018-12-28T19:24:57Z</time>
      </trkpt>
      <trkpt lat="37.089230" lon="-121.001080">
        <ele>47.038</ele>
        <time>2018-12-28T19:25:17Z</time>
      </trkpt>
      <trkpt lat="37.089850" lon="-121.001690">
        <ele>46.762</ele>
        <time>2018-12-28T19:25:37Z</time>
      </trkpt>
      <trkpt lat="37.090580" lon="-121.002390">
        <ele>46.745</ele>
        <time>2018-12-28T19:25:57Z</time>
      </trkpt>
      <trkpt lat="37.091300" lon="-121.003090">
        <ele>46.799</ele>
        <time>2018-12-28T19:26:17Z</time>
      </trkpt>
      <trkpt lat="37.092030" lon="-121.003790">
        <ele>46.682</ele>
        <time>2018-12-28T19:26:37Z</time>
      </trkpt>
      <trkpt lat="37.093000" lon="-121.004660">
        <ele>46.677</ele>
        <time>2018-12-28T19:26:57Z</time>
      </trkpt>
      <trkpt lat="37.093380" lon="-121.005000">
        <ele>46.761</ele>
        <time>2018-12-28T19:27:17Z</time>
      </trkpt>
      <trkpt lat="37.093940" lon="-121.005480">
        <ele>46.727</ele>
        <time>2018-12-28T19:27:37Z</time>
      </trkpt>
      <trkpt lat="37.094860" lon="-121.006250">
        <ele>46.608</ele>
        <time>2018-12-28T19:27:57Z</time>
      </trkpt>
      <trkpt lat="37.096230" lon="-121.007360">
        <ele>46.630</ele>
        <time>2018-12-28T19:28:17Z</time>
      </trkpt>
      <trkpt lat="37.104350" lon="-121.013980">
        <ele>46.648</ele>
        <time>2018-12-28T19:28:37Z</time>
      </trkpt>
      <trkpt lat="37.104580" lon="-121.014160">
        <ele>46.653</ele>
        <time>2018-12-28T19:28:57Z</time>
      </trkpt>
      <trkpt lat="37.109450" lon="-121.018140">
        <ele>47.582</ele>
        <time>2018-12-28T19:29:17Z</time>
      </trkpt>
      <trkpt lat="37.109800" lon="-121.018420">
        <ele>47.666</ele>
        <time>2018-12-28T19:29:37Z</time>
      </trkpt>
      <trkpt lat="37.110450" lon="-121.018950">
        <ele>47.999</ele>
        <time>2018-12-28T19:29:57Z</time>
      </trkpt>
      <trkpt lat="37.110910" lon="-121.019320">
        <ele>48.223</ele>
        <time>2018-12-28T19:30:17Z</time>
      </trkpt>
      <trkpt lat="37.111680" lon="-121.019930">
        <ele>48.886</ele>
        <time>2018-12-28T19:30:37Z</time>
      </trkpt>
      <trkpt lat="37.112430" lon="-121.020500">
        <ele>49.536</ele>
        <time>2018-12-28T19:30:57Z</time>
      </trkpt>
      <trkpt lat="37.112950" lon="-121.020880">
        <ele>49.717</ele>
        <time>2018-12-28T19:31:17Z</time>
      </trkpt>
      <trkpt lat="37.113640" lon="-121.021360">
        <ele>49.718</ele>
        <time>2018-12-28T19:31:37Z</time>
      </trkpt>
      <trkpt lat="37.114100" lon="-121.021670">
        <ele>49.708</ele>
        <time>2018-12-28T19:31:57Z</time>
      </trkpt>
      <trkpt lat="37.115070" lon="-121.022300">
        <ele>51.586</ele>
        <time>2018-12-28T19:32:17Z</time>
      </trkpt>
      <trkpt lat="37.115730" lon="-121.022730">
        <ele>51.924</ele>
        <time>2018-12-28T19:32:37Z</time>
      </trkpt>
      <trkpt lat="37.115950" lon="-121.022870">
        <ele>51.879</ele>
        <time>2018-12-28T19:32:57Z</time>
      </trkpt>
      <trkpt lat="37.116880" lon="-121.023490">
        <ele>50.978</ele>
        <time>2018-12-28T19:33:17Z</time>
      </trkpt>
      <trkpt lat="37.117920" lon="-121.024170">
        <ele>50.712</ele>
        <time>2018-12-28T19:33:37Z</time>
      </trkpt>
      <trkpt lat="37.118970" lon="-121.024860">
        <ele>50.815</ele>
        <time>2018-12-28T19:33:57Z</time>
      </trkpt>
      <trkpt lat="37.120130" lon="-121.025610">
        <ele>51.059</ele>
        <time>2018-12-28T19:34:17Z</time>
      </trkpt>
      <trkpt lat="37.121640" lon="-121.026600">
        <ele>51.232</ele>
        <time>2018-12-28T19:34:37Z</time>
      </trkpt>
      <trkpt lat="37.122510" lon="-121.027160">
        <ele>51.344</ele>
        <time>2018-12-28T19:34:57Z</time>
      </trkpt>
      <trkpt lat="37.122940" lon="-121.027440">
        <ele>51.405</ele>
        <time>2018-12-28T19:35:17Z</time>
      </trkpt>
      <trkpt lat="37.123580" lon="-121.027860">
        <ele>51.515</ele>
        <time>2018-12-28T19:35:37Z</time>
      </trkpt>
      <trkpt lat="37.125820" lon="-121.029320">
        <ele>51.108</ele>
        <time>2018-12-28T19:35:57Z</time>
      </trkpt>
      <trkpt lat="37.126770" lon="-121.029950">
        <ele>51.147</ele>
        <time>2018-12-28T19:36:17Z</time>
      </trkpt>
      <trkpt lat="37.127330" lon="-121.030310">
        <ele>51.165</ele>
        <time>2018-12-28T19:36:37Z</time>
      </trkpt>
      <trkpt lat="37.128480" lon="-121.031070">
        <ele>51.280</ele>
        <time>2018-12-28T19:36:57Z</time>
      </trkpt>
      <trkpt lat="37.129530" lon="-121.031750">
        <ele>51.519</ele>
        <time>2018-12-28T19:37:17Z</time>
      </trkpt>
      <trkpt lat="37.130430" lon="-121.032330">
        <ele>51.733</ele>
        <time>2018-12-28T19:37:37Z</time>
      </trkpt>
      <trkpt lat="37.130570" lon="-121.032420">
        <ele>51.766</ele>
        <time>2018-12-28T19:37:57Z</time>
      </trkpt>
      <trkpt lat="37.130760" lon="-121.032560">
        <ele>51.810</ele>
        <time>2018-12-28T19:38:17Z</time>
      </trkpt>
      <trkpt lat="37.131310" lon="-121.032910">
        <ele>51.853</ele>
        <time>2018-12-28T19:38:37Z</time>
      </trkpt>
      <trkpt lat="37.134990" lon="-121.035310">
        <ele>51.939</ele>
        <time>2018-12-28T19:38:57Z</time>
      </trkpt>
      <trkpt lat="37.135910" lon="-121.035910">
        <ele>51.801</ele>
        <time>2018-12-28T19:39:17Z</time>
      </trkpt>
      <trkpt lat="37.136840" lon="-121.036520">
        <ele>51.121</ele>
        <time>2018-12-28T19:39:37Z</time>
      </trkpt>
      <trkpt lat="37.138010" lon="-121.037280">
        <ele>51.508</ele>
        <time>2018-12-28T19:39:57Z</time>
      </trkpt>
      <trkpt lat="37.139510" lon="-121.038260">
        <ele>51.236</ele>
        <time>2018-12-28T19:40:17Z</time>
      </trkpt>
      <trkpt lat="37.140320" lon="-121.038790">
        <ele>51.174</ele>
        <time>2018-12-28T19:40:37Z</time>
      </trkpt>
      <trkpt lat="37.141140" lon="-121.039320">
        <ele>51.119</ele>
        <time>2018-12-28T19:40:57Z</time>
      </trkpt>
      <trkpt lat="37.141830" lon="-121.039770">
        <ele>51.188</ele>
        <time>2018-12-28T19:41:17Z</time>
      </trkpt>
      <trkpt lat="37.142530" lon="-121.040230">
        <ele>51.192</ele>
        <time>2018-12-28T19:41:37Z</time>
      </trkpt>
      <trkpt lat="37.143340" lon="-121.040750">
        <ele>51.295</ele>
        <time>2018-12-28T19:41:57Z</time>
      </trkpt>
      <trkpt lat="37.144030" lon="-121.041200">
        <ele>52.229</ele>
        <time>2018-12-28T19:42:17Z</time>
      </trkpt>
      <trkpt lat="37.144560" lon="-121.041540">
        <ele>52.962</ele>
        <time>2018-12-28T19:42:37Z</time>
      </trkpt>
      <trkpt lat="37.144800" lon="-121.041700">
        <ele>53.187</ele>
        <time>2018-12-28T19:42:57Z</time>
      </trkpt>
      <trkpt lat="37.145430" lon="-121.042110">
        <ele>53.742</ele>
        <time>2018-12-28T19:43:17Z</time>
      </trkpt>
      <trkpt lat="37.145770" lon="-121.042330">
        <ele>54.026</ele>
        <time>2018-12-28T19:43:37Z</time>
      </trkpt>
      <trkpt lat="37.146040" lon="-121.042510">
        <ele>54.108</ele>
        <time>2018-12-28T19:43:57Z</time>
      </trkpt>
      <trkpt lat="37.146730" lon="-121.042960">
        <ele>54.771</ele>
        <time>2018-12-28T19:44:17Z</time>
      </trkpt>
      <trkpt lat="37.147430" lon="-121.043430">
        <ele>55.749</ele>
        <time>2018-12-28T19:44:37Z</time>
      </trkpt>
      <trkpt lat="37.148230" lon="-121.043960">
        <ele>56.844</ele>
        <time>2018-12-28T19:44:57Z</time>
      </trkpt>
      <trkpt lat="37.148940" lon="-121.044420">
        <ele>57.763</ele>
        <time>2018-12-28T19:45:17Z</time>
      </trkpt>
      <trkpt lat="37.149860" lon="-121.045020">
        <ele>58.837</ele>
        <time>2018-12-28T19:45:37Z</time>
      </trkpt>
      <trkpt lat="37.151020" lon="-121.045780">
        <ele>60.290</ele>
        <time>2018-12-28T19:45:57Z</time>
      </trkpt>
      <trkpt lat="37.151830" lon="-121.046310">
        <ele>61.054</ele>
        <time>2018-12-28T19:46:17Z</time>
      </trkpt>
      <trkpt lat="37.152300" lon="-121.046610">
        <ele>61.557</ele>
        <time>2018-12-28T19:46:37Z</time>
      </trkpt>
      <trkpt lat="37.152880" lon="-121.046990">
        <ele>61.899</ele>
        <time>2018-12-28T19:46:57Z</time>
      </trkpt>
      <trkpt lat="37.153580" lon="-121.047450">
        <ele>61.707</ele>
        <time>2018-12-28T19:47:17Z</time>
      </trkpt>
      <trkpt lat="37.154380" lon="-121.047980">
        <ele>62.027</ele>
        <time>2018-12-28T19:47:37Z</time>
      </trkpt>
      <trkpt lat="37.155200" lon="-121.048510">
        <ele>61.708</ele>
        <time>2018-12-28T19:47:57Z</time>
      </trkpt>
      <trkpt lat="37.155780" lon="-121.048890">
        <ele>62.152</ele>
        <time>2018-12-28T19:48:17Z</time>
      </trkpt>
      <trkpt lat="37.156470" lon="-121.049340">
        <ele>62.440</ele>
        <time>2018-12-28T19:48:37Z</time>
      </trkpt>
      <trkpt lat="37.157050" lon="-121.049720">
        <ele>62.625</ele>
        <time>2018-12-28T19:48:57Z</time>
      </trkpt>
      <trkpt lat="37.157520" lon="-121.050020">
        <ele>62.734</ele>
        <time>2018-12-28T19:49:17Z</time>
      </trkpt>
      <trkpt lat="37.158330" lon="-121.050550">
        <ele>62.428</ele>
        <time>2018-12-28T19:49:37Z</time>
      </trkpt>
      <trkpt lat="37.158800" lon="-121.050860">
        <ele>61.861</ele>
        <time>2018-12-28T19:49:57Z</time>
      </trkpt>
      <trkpt lat="37.159450" lon="-121.051280">
        <ele>61.825</ele>
        <time>2018-12-28T19:50:17Z</time>
      </trkpt>
      <trkpt lat="37.160420" lon="-121.051920">
        <ele>66.158</ele>
        <time>2018-12-28T19:50:37Z</time>
      </trkpt>
      <trkpt lat="37.161120" lon="-121.052380">
        <ele>67.838</ele>
        <time>2018-12-28T19:50:57Z</time>
      </trkpt>
      <trkpt lat="37.162040" lon="-121.052980">
        <ele>66.070</ele>
        <time>2018-12-28T19:51:17Z</time>
      </trkpt>
      <trkpt lat="37.162510" lon="-121.053280">
        <ele>63.517</ele>
        <time>2018-12-28T19:51:37Z</time>
      </trkpt>
      <trkpt lat="37.163430" lon="-121.053890">
        <ele>66.908</ele>
        <time>2018-12-28T19:51:57Z</time>
      </trkpt>
      <trkpt lat="37.164020" lon="-121.054270">
        <ele>70.096</ele>
        <time>2018-12-28T19:52:17Z</time>
      </trkpt>
      <trkpt lat="37.164600" lon="-121.054650">
        <ele>71.074</ele>
        <time>2018-12-28T19:52:37Z</time>
      </trkpt>
      <trkpt lat="37.164950" lon="-121.054880">
        <ele>71.059</ele>
        <time>2018-12-28T19:52:57Z</time>
      </trkpt>
      <trkpt lat="37.165870" lon="-121.055480">
        <ele>70.558</ele>
        <time>2018-12-28T19:53:17Z</time>
      </trkpt>
      <trkpt lat="37.166340" lon="-121.055780">
        <ele>69.172</ele>
        <time>2018-12-28T19:53:37Z</time>
      </trkpt>
      <trkpt lat="37.166810" lon="-121.056090">
        <ele>69.265</ele>
        <time>2018-12-28T19:53:57Z</time>
      </trkpt>
      <trkpt lat="37.167500" lon="-121.056540">
        <ele>69.549</ele>
        <time>2018-12-28T19:54:17Z</time>
      </trkpt>
      <trkpt lat="37.167850" lon="-121.056770">
        <ele>64.782</ele>
        <time>2018-12-28T19:54:37Z</time>
      </trkpt>
      <trkpt lat="37.168200" lon="-121.057000">
        <ele>61.257</ele>
        <time>2018-12-28T19:54:57Z</time>
      </trkpt>
      <trkpt lat="37.168770" lon="-121.057370">
        <ele>65.700</ele>
        <time>2018-12-28T19:55:17Z</time>
      </trkpt>
      <trkpt lat="37.169480" lon="-121.057830">
        <ele>69.220</ele>
        <time>2018-12-28T19:55:37Z</time>
      </trkpt>
      <trkpt lat="37.170170" lon="-121.058290">
        <ele>71.308</ele>
        <time>2018-12-28T19:55:57Z</time>
      </trkpt>
      <trkpt lat="37.171560" lon="-121.059200">
        <ele>76.768</ele>
        <time>2018-12-28T19:56:17Z</time>
      </trkpt>
      <trkpt lat="37.174230" lon="-121.060950">
        <ele>69.626</ele>
        <time>2018-12-28T19:56:37Z</time>
      </trkpt>
      <trkpt lat="37.176200" lon="-121.062230">
        <ele>70.981</ele>
        <time>2018-12-28T19:56:57Z</time>
      </trkpt>
      <trkpt lat="37.177240" lon="-121.062910">
        <ele>61.930</ele>
        <time>2018-12-28T19:57:17Z</time>
      </trkpt>
      <trkpt lat="37.177610" lon="-121.063150">
        <ele>57.784</ele>
        <time>2018-12-28T19:57:37Z</time>
      </trkpt>
      <trkpt lat="37.191420" lon="-121.072180">
        <ele>61.517</ele>
        <time>2018-12-28T19:57:57Z</time>
      </trkpt>
      <trkpt lat="37.192460" lon="-121.072870">
        <ele>61.461</ele>
        <time>2018-12-28T19:58:17Z</time>
      </trkpt>
      <trkpt lat="37.193510" lon="-121.073550">
        <ele>62.024</ele>
        <time>2018-12-28T19:58:37Z</time>
      </trkpt>
      <trkpt lat="37.194550" lon="-121.074220">
        <ele>68.949</ele>
        <time>2018-12-28T19:58:57Z</time>
      </trkpt>
      <trkpt lat="37.195130" lon="-121.074600">
        <ele>69.202</ele>
        <time>2018-12-28T19:59:17Z</time>
      </trkpt>
      <trkpt lat="37.195490" lon="-121.074820">
        <ele>67.922</ele>
        <time>2018-12-28T19:59:37Z</time>
      </trkpt>
      <trkpt lat="37.195720" lon="-121.074970">
        <ele>66.608</ele>
        <time>2018-12-28T19:59:57Z</time>
      </trkpt>
      <trkpt lat="37.195960" lon="-121.075110">
        <ele>64.897</ele>
        <time>2018-12-28T20:00:17Z</time>
      </trkpt>
      <trkpt lat="37.196200" lon="-121.075250">
        <ele>63.095</ele>
        <time>2018-12-28T20:00:37Z</time>
      </trkpt>
      <trkpt lat="37.196440" lon="-121.075390">
        <ele>61.920</ele>
        <time>2018-12-28T20:00:57Z</time>
      </trkpt>
      <trkpt lat="37.196680" lon="-121.075520">
        <ele>62.039</ele>
        <time>2018-12-28T20:01:17Z</time>
      </trkpt>
      <trkpt lat="37.196920" lon="-121.075640">
        <ele>62.733</ele>
        <time>2018-12-28T20:01:37Z</time>
      </trkpt>
      <trkpt lat="37.197160" lon="-121.075760">
        <ele>63.126</ele>
        <time>2018-12-28T20:01:57Z</time>
      </trkpt>
      <trkpt lat="37.197410" lon="-121.075880">
        <ele>62.910</ele>
        <time>2018-12-28T20:02:17Z</time>
      </trkpt>
      <trkpt lat="37.197650" lon="-121.076000">
        <ele>62.223</ele>
        <time>2018-12-28T20:02:37Z</time>
      </trkpt>
      <trkpt lat="37.197900" lon="-121.076110">
        <ele>62.849</ele>
        <time>2018-12-28T20:02:57Z</time>
      </trkpt>
      <trkpt lat="37.198140" lon="-121.076210">
        <ele>64.002</ele>
        <time>2018-12-28T20:03:17Z</time>
      </trkpt>
      <trkpt lat="37.198390" lon="-121.076310">
        <ele>65.022</ele>
        <time>2018-12-28T20:03:37Z</time>
      </trkpt>
      <trkpt lat="37.198640" lon="-121.076400">
        <ele>65.808</ele>
        <time>2018-12-28T20:03:57Z</time>
      </trkpt>
      <trkpt lat="37.198890" lon="-121.076500">
        <ele>66.447</ele>
        <time>2018-12-28T20:04:17Z</time>
      </trkpt>
      <trkpt lat="37.199140" lon="-121.076590">
        <ele>66.645</ele>
        <time>2018-12-28T20:04:37Z</time>
      </trkpt>
      <trkpt lat="37.199390" lon="-121.076680">
        <ele>66.570</ele>
        <time>2018-12-28T20:04:57Z</time>
      </trkpt>
      <trkpt lat="37.199650" lon="-121.076760">
        <ele>65.969</ele>
        <time>2018-12-28T20:05:17Z</time>
      </trkpt>
      <trkpt lat="37.199910" lon="-121.076850">
        <ele>65.243</ele>
        <time>2018-12-28T20:05:37Z</time>
      </trkpt>
      <trkpt lat="37.200160" lon="-121.076920">
        <ele>64.776</ele>
        <time>2018-12-28T20:05:57Z</time>
      </trkpt>
      <trkpt lat="37.200420" lon="-121.077000">
        <ele>64.370</ele>
        <time>2018-12-28T20:06:17Z</time>
      </trkpt>
      <trkpt lat="37.200670" lon="-121.077060">
        <ele>64.093</ele>
        <time>2018-12-28T20:06:37Z</time>
      </trkpt>
      <trkpt lat="37.200930" lon="-121.077130">
        <ele>63.717</ele>
        <time>2018-12-28T20:06:57Z</time>
      </trkpt>
      <trkpt lat="37.201190" lon="-121.077200">
        <ele>63.687</ele>
        <time>2018-12-28T20:07:17Z</time>
      </trkpt>
      <trkpt lat="37.201450" lon="-121.077270">
        <ele>63.415</ele>
        <time>2018-12-28T20:07:37Z</time>
      </trkpt>
      <trkpt lat="37.202600" lon="-121.077570">
        <ele>63.508</ele>
        <time>2018-12-28T20:07:57Z</time>
      </trkpt>
      <trkpt lat="37.203370" lon="-121.077770">
        <ele>63.494</ele>
        <time>2018-12-28T20:08:17Z</time>
      </trkpt>
      <trkpt lat="37.205410" lon="-121.078290">
        <ele>64.872</ele>
        <time>2018-12-28T20:08:37Z</time>
      </trkpt>
      <trkpt lat="37.206310" lon="-121.078520">
        <ele>66.067</ele>
        <time>2018-12-28T20:08:57Z</time>
      </trkpt>
      <trkpt lat="37.207080" lon="-121.078710">
        <ele>66.726</ele>
        <time>2018-12-28T20:09:17Z</time>
      </trkpt>
      <trkpt lat="37.207860" lon="-121.078910">
        <ele>67.190</ele>
        <time>2018-12-28T20:09:37Z</time>
      </trkpt>
      <trkpt lat="37.209260" lon="-121.079270">
        <ele>66.373</ele>
        <time>2018-12-28T20:09:57Z</time>
      </trkpt>
      <trkpt lat="37.209770" lon="-121.079400">
        <ele>66.827</ele>
        <time>2018-12-28T20:10:17Z</time>
      </trkpt>
      <trkpt lat="37.211950" lon="-121.079960">
        <ele>66.750</ele>
        <time>2018-12-28T20:10:37Z</time>
      </trkpt>
      <trkpt lat="37.216690" lon="-121.081170">
        <ele>64.523</ele>
        <time>2018-12-28T20:10:57Z</time>
      </trkpt>
      <trkpt lat="37.218870" lon="-121.081720">
        <ele>62.783</ele>
        <time>2018-12-28T20:11:17Z</time>
      </trkpt>
      <trkpt lat="37.220410" lon="-121.082110">
        <ele>63.111</ele>
        <time>2018-12-28T20:11:37Z</time>
      </trkpt>
      <trkpt lat="37.222330" lon="-121.082610">
        <ele>62.308</ele>
        <time>2018-12-28T20:11:57Z</time>
      </trkpt>
      <trkpt lat="37.223480" lon="-121.082900">
        <ele>61.915</ele>
        <time>2018-12-28T20:12:17Z</time>
      </trkpt>
      <trkpt lat="37.225170" lon="-121.083340">
        <ele>61.123</ele>
        <time>2018-12-28T20:12:37Z</time>
      </trkpt>
      <trkpt lat="37.229710" lon="-121.084490">
        <ele>61.668</ele>
        <time>2018-12-28T20:12:57Z</time>
      </trkpt>
      <trkpt lat="37.230550" lon="-121.084700">
        <ele>61.587</ele>
        <time>2018-12-28T20:13:17Z</time>
      </trkpt>
      <trkpt lat="37.232870" lon="-121.085290">
        <ele>61.051</ele>
        <time>2018-12-28T20:13:37Z</time>
      </trkpt>
      <trkpt lat="37.234010" lon="-121.085590">
        <ele>59.914</ele>
        <time>2018-12-28T20:13:57Z</time>
      </trkpt>
      <trkpt lat="37.234840" lon="-121.085790">
        <ele>58.998</ele>
        <time>2018-12-28T20:14:17Z</time>
      </trkpt>
      <trkpt lat="37.236060" lon="-121.086110">
        <ele>60.181</ele>
        <time>2018-12-28T20:14:37Z</time>
      </trkpt>
      <trkpt lat="37.238630" lon="-121.086770">
        <ele>59.629</ele>
        <time>2018-12-28T20:14:57Z</time>
      </trkpt>
      <trkpt lat="37.239480" lon="-121.086990">
        <ele>59.800</ele>
        <time>2018-12-28T20:15:17Z</time>
      </trkpt>
      <trkpt lat="37.240050" lon="-121.087130">
        <ele>59.820</ele>
        <time>2018-12-28T20:15:37Z</time>
      </trkpt>
      <trkpt lat="37.241190" lon="-121.087420">
        <ele>58.908</ele>
        <time>2018-12-28T20:15:57Z</time>
      </trkpt>
      <trkpt lat="37.242730" lon="-121.087820">
        <ele>60.455</ele>
        <time>2018-12-28T20:16:17Z</time>
      </trkpt>
      <trkpt lat="37.245290" lon="-121.088470">
        <ele>61.393</ele>
        <time>2018-12-28T20:16:37Z</time>
      </trkpt>
      <trkpt lat="37.246320" lon="-121.088740">
        <ele>62.098</ele>
        <time>2018-12-28T20:16:57Z</time>
      </trkpt>
      <trkpt lat="37.247400" lon="-121.089020">
        <ele>62.977</ele>
        <time>2018-12-28T20:17:17Z</time>
      </trkpt>
      <trkpt lat="37.247510" lon="-121.089050">
        <ele>63.151</ele>
        <time>2018-12-28T20:17:37Z</time>
      </trkpt>
      <trkpt lat="37.248190" lon="-121.089220">
        <ele>64.594</ele>
        <time>2018-12-28T20:17:57Z</time>
      </trkpt>
      <trkpt lat="37.248310" lon="-121.089260">
        <ele>65.078</ele>
        <time>2018-12-28T20:18:17Z</time>
      </trkpt>
      <trkpt lat="37.249190" lon="-121.089490">
        <ele>68.641</ele>
        <time>2018-12-28T20:18:37Z</time>
      </trkpt>
      <trkpt lat="37.249670" lon="-121.089620">
        <ele>69.186</ele>
        <time>2018-12-28T20:18:57Z</time>
      </trkpt>
      <trkpt lat="37.250500" lon="-121.089820">
        <ele>67.160</ele>
        <time>2018-12-28T20:19:17Z</time>
      </trkpt>
      <trkpt lat="37.250890" lon="-121.089910">
        <ele>65.126</ele>
        <time>2018-12-28T20:19:37Z</time>
      </trkpt>
      <trkpt lat="37.251280" lon="-121.090000">
        <ele>62.108</ele>
        <time>2018-12-28T20:19:57Z</time>
      </trkpt>
      <trkpt lat="37.251770" lon="-121.090130">
        <ele>64.851</ele>
        <time>2018-12-28T20:20:17Z</time>
      </trkpt>
      <trkpt lat="37.252180" lon="-121.090250">
        <ele>68.119</ele>
        <time>2018-12-28T20:20:37Z</time>
      </trkpt>
      <trkpt lat="37.252700" lon="-121.090380">
        <ele>67.944</ele>
        <time>2018-12-28T20:20:57Z</time>
      </trkpt>
      <trkpt lat="37.253460" lon="-121.090560">
        <ele>64.083</ele>
        <time>2018-12-28T20:21:17Z</time>
      </trkpt>
      <trkpt lat="37.253600" lon="-121.090600">
        <ele>64.127</ele>
        <time>2018-12-28T20:21:37Z</time>
      </trkpt>
      <trkpt lat="37.254120" lon="-121.090740">
        <ele>66.190</ele>
        <time>2018-12-28T20:21:57Z</time>
      </trkpt>
      <trkpt lat="37.254760" lon="-121.090920">
        <ele>70.314</ele>
        <time>2018-12-28T20:22:17Z</time>
      </trkpt>
      <trkpt lat="37.255920" lon="-121.091230">
        <ele>72.547</ele>
        <time>2018-12-28T20:22:37Z</time>
      </trkpt>
      <trkpt lat="37.256430" lon="-121.091360">
        <ele>70.384</ele>
        <time>2018-12-28T20:22:57Z</time>
      </trkpt>
      <trkpt lat="37.256950" lon="-121.091470">
        <ele>61.307</ele>
        <time>2018-12-28T20:23:17Z</time>
      </trkpt>
      <trkpt lat="37.257470" lon="-121.091590">
        <ele>56.317</ele>
        <time>2018-12-28T20:23:37Z</time>
      </trkpt>
      <trkpt lat="37.257730" lon="-121.091650">
        <ele>53.708</ele>
        <time>2018-12-28T20:23:57Z</time>
      </trkpt>
      <trkpt lat="37.258750" lon="-121.091920">
        <ele>55.641</ele>
        <time>2018-12-28T20:24:17Z</time>
      </trkpt>
      <trkpt lat="37.259140" lon="-121.092020">
        <ele>57.279</ele>
        <time>2018-12-28T20:24:37Z</time>
      </trkpt>
      <trkpt lat="37.260300" lon="-121.092320">
        <ele>60.654</ele>
        <time>2018-12-28T20:24:57Z</time>
      </trkpt>
      <trkpt lat="37.260550" lon="-121.092380">
        <ele>61.313</ele>
        <time>2018-12-28T20:25:17Z</time>
      </trkpt>
      <trkpt lat="37.260810" lon="-121.092460">
        <ele>63.417</ele>
        <time>2018-12-28T20:25:37Z</time>
      </trkpt>
      <trkpt lat="37.261070" lon="-121.092530">
        <ele>65.940</ele>
        <time>2018-12-28T20:25:57Z</time>
      </trkpt>
      <trkpt lat="37.261320" lon="-121.092590">
        <ele>67.454</ele>
        <time>2018-12-28T20:26:17Z</time>
      </trkpt>
      <trkpt lat="37.261820" lon="-121.092720">
        <ele>67.257</ele>
        <time>2018-12-28T20:26:37Z</time>
      </trkpt>
      <trkpt lat="37.262230" lon="-121.092830">
        <ele>69.922</ele>
        <time>2018-12-28T20:26:57Z</time>
      </trkpt>
      <trkpt lat="37.262480" lon="-121.092900">
        <ele>72.962</ele>
        <time>2018-12-28T20:27:17Z</time>
      </trkpt>
      <trkpt lat="37.262880" lon="-121.093000">
        <ele>74.508</ele>
        <time>2018-12-28T20:27:37Z</time>
      </trkpt>
      <trkpt lat="37.263510" lon="-121.093160">
        <ele>74.208</ele>
        <time>2018-12-28T20:27:57Z</time>
      </trkpt>
      <trkpt lat="37.264280" lon="-121.093350">
        <ele>72.455</ele>
        <time>2018-12-28T20:28:17Z</time>
      </trkpt>
      <trkpt lat="37.264800" lon="-121.093480">
        <ele>70.423</ele>
        <time>2018-12-28T20:28:37Z</time>
      </trkpt>
      <trkpt lat="37.265190" lon="-121.093570">
        <ele>68.458</ele>
        <time>2018-12-28T20:28:57Z</time>
      </trkpt>
      <trkpt lat="37.265320" lon="-121.093610">
        <ele>69.597</ele>
        <time>2018-12-28T20:29:17Z</time>
      </trkpt>
      <trkpt lat="37.265680" lon="-121.093710">
        <ele>72.121</ele>
        <time>2018-12-28T20:29:37Z</time>
      </trkpt>
      <trkpt lat="37.265960" lon="-121.093780">
        <ele>71.684</ele>
        <time>2018-12-28T20:29:57Z</time>
      </trkpt>
      <trkpt lat="37.266220" lon="-121.093840">
        <ele>69.078</ele>
        <time>2018-12-28T20:30:17Z</time>
      </trkpt>
      <trkpt lat="37.266480" lon="-121.093900">
        <ele>66.241</ele>
        <time>2018-12-28T20:30:37Z</time>
      </trkpt>
      <trkpt lat="37.266610" lon="-121.093930">
        <ele>64.745</ele>
        <time>2018-12-28T20:30:57Z</time>
      </trkpt>
      <trkpt lat="37.266740" lon="-121.093960">
        <ele>63.147</ele>
        <time>2018-12-28T20:31:17Z</time>
      </trkpt>
      <trkpt lat="37.266880" lon="-121.093980">
        <ele>59.811</ele>
        <time>2018-12-28T20:31:37Z</time>
      </trkpt>
      <trkpt lat="37.267000" lon="-121.094010">
        <ele>55.808</ele>
        <time>2018-12-28T20:31:57Z</time>
      </trkpt>
      <trkpt lat="37.267100" lon="-121.094030">
        <ele>53.037</ele>
        <time>2018-12-28T20:32:17Z</time>
      </trkpt>
      <trkpt lat="37.267770" lon="-121.094200">
        <ele>53.255</ele>
        <time>2018-12-28T20:32:37Z</time>
      </trkpt>
      <trkpt lat="37.268150" lon="-121.094310">
        <ele>53.580</ele>
        <time>2018-12-28T20:32:57Z</time>
      </trkpt>
      <trkpt lat="37.269050" lon="-121.094540">
        <ele>54.089</ele>
        <time>2018-12-28T20:33:17Z</time>
      </trkpt>
      <trkpt lat="37.269290" lon="-121.094600">
        <ele>54.183</ele>
        <time>2018-12-28T20:33:37Z</time>
      </trkpt>
      <trkpt lat="37.270610" lon="-121.094950">
        <ele>54.566</ele>
        <time>2018-12-28T20:33:57Z</time>
      </trkpt>
      <trkpt lat="37.270920" lon="-121.095030">
        <ele>56.230</ele>
        <time>2018-12-28T20:34:17Z</time>
      </trkpt>
      <trkpt lat="37.271400" lon="-121.095160">
        <ele>57.863</ele>
        <time>2018-12-28T20:34:37Z</time>
      </trkpt>
      <trkpt lat="37.271760" lon="-121.095250">
        <ele>55.852</ele>
        <time>2018-12-28T20:34:57Z</time>
      </trkpt>
      <trkpt lat="37.272240" lon="-121.095380">
        <ele>58.253</ele>
        <time>2018-12-28T20:35:17Z</time>
      </trkpt>
      <trkpt lat="37.272760" lon="-121.095520">
        <ele>62.708</ele>
        <time>2018-12-28T20:35:37Z</time>
      </trkpt>
      <trkpt lat="37.273190" lon="-121.095630">
        <ele>67.608</ele>
        <time>2018-12-28T20:35:57Z</time>
      </trkpt>
      <trkpt lat="37.273830" lon="-121.095800">
        <ele>70.678</ele>
        <time>2018-12-28T20:36:17Z</time>
      </trkpt>
      <trkpt lat="37.274080" lon="-121.095870">
        <ele>71.566</ele>
        <time>2018-12-28T20:36:37Z</time>
      </trkpt>
      <trkpt lat="37.274340" lon="-121.095930">
        <ele>72.521</ele>
        <time>2018-12-28T20:36:57Z</time>
      </trkpt>
      <trkpt lat="37.275240" lon="-121.096160">
        <ele>74.350</ele>
        <time>2018-12-28T20:37:17Z</time>
      </trkpt>
      <trkpt lat="37.276270" lon="-121.096420">
        <ele>74.154</ele>
        <time>2018-12-28T20:37:37Z</time>
      </trkpt>
      <trkpt lat="37.276360" lon="-121.096440">
        <ele>73.947</ele>
        <time>2018-12-28T20:37:57Z</time>
      </trkpt>
      <trkpt lat="37.276620" lon="-121.096510">
        <ele>73.651</ele>
        <time>2018-12-28T20:38:17Z</time>
      </trkpt>
      <trkpt lat="37.277170" lon="-121.096650">
        <ele>72.544</ele>
        <time>2018-12-28T20:38:37Z</time>
      </trkpt>
      <trkpt lat="37.277810" lon="-121.096810">
        <ele>69.819</ele>
        <time>2018-12-28T20:38:57Z</time>
      </trkpt>
      <trkpt lat="37.278680" lon="-121.097030">
        <ele>70.609</ele>
        <time>2018-12-28T20:39:17Z</time>
      </trkpt>
      <trkpt lat="37.279070" lon="-121.097130">
        <ele>68.219</ele>
        <time>2018-12-28T20:39:37Z</time>
      </trkpt>
      <trkpt lat="37.279330" lon="-121.097200">
        <ele>68.208</ele>
        <time>2018-12-28T20:39:57Z</time>
      </trkpt>
      <trkpt lat="37.279870" lon="-121.097330">
        <ele>63.054</ele>
        <time>2018-12-28T20:40:17Z</time>
      </trkpt>
      <trkpt lat="37.280130" lon="-121.097390">
        <ele>60.232</ele>
        <time>2018-12-28T20:40:37Z</time>
      </trkpt>
      <trkpt lat="37.280200" lon="-121.097410">
        <ele>60.077</ele>
        <time>2018-12-28T20:40:57Z</time>
      </trkpt>
      <trkpt lat="37.285680" lon="-121.098820">
        <ele>54.896</ele>
        <time>2018-12-28T20:41:17Z</time>
      </trkpt>
      <trkpt lat="37.287350" lon="-121.099250">
        <ele>61.660</ele>
        <time>2018-12-28T20:41:37Z</time>
      </trkpt>
      <trkpt lat="37.288010" lon="-121.099420">
        <ele>62.613</ele>
        <time>2018-12-28T20:41:57Z</time>
      </trkpt>
      <trkpt lat="37.289000" lon="-121.099670">
        <ele>61.847</ele>
        <time>2018-12-28T20:42:17Z</time>
      </trkpt>
      <trkpt lat="37.290180" lon="-121.099980">
        <ele>61.380</ele>
        <time>2018-12-28T20:42:37Z</time>
      </trkpt>
      <trkpt lat="37.291990" lon="-121.100430">
        <ele>62.088</ele>
        <time>2018-12-28T20:42:57Z</time>
      </trkpt>
      <trkpt lat="37.292580" lon="-121.100590">
        <ele>65.324</ele>
        <time>2018-12-28T20:43:17Z</time>
      </trkpt>
      <trkpt lat="37.293170" lon="-121.100740">
        <ele>70.626</ele>
        <time>2018-12-28T20:43:37Z</time>
      </trkpt>
      <trkpt lat="37.293890" lon="-121.100930">
        <ele>74.808</ele>
        <time>2018-12-28T20:43:57Z</time>
      </trkpt>
      <trkpt lat="37.294530" lon="-121.101090">
        <ele>74.051</ele>
        <time>2018-12-28T20:44:17Z</time>
      </trkpt>
      <trkpt lat="37.295460" lon="-121.101330">
        <ele>71.539</ele>
        <time>2018-12-28T20:44:37Z</time>
      </trkpt>
      <trkpt lat="37.297660" lon="-121.101890">
        <ele>76.614</ele>
        <time>2018-12-28T20:44:57Z</time>
      </trkpt>
      <trkpt lat="37.298680" lon="-121.102150">
        <ele>79.533</ele>
        <time>2018-12-28T20:45:17Z</time>
      </trkpt>
      <trkpt lat="37.299320" lon="-121.102320">
        <ele>83.557</ele>
        <time>2018-12-28T20:45:37Z</time>
      </trkpt>
      <trkpt lat="37.300440" lon="-121.102610">
        <ele>96.640</ele>
        <time>2018-12-28T20:45:57Z</time>
      </trkpt>
      <trkpt lat="37.300940" lon="-121.102750">
        <ele>102.614</ele>
        <time>2018-12-28T20:46:17Z</time>
      </trkpt>
      <trkpt lat="37.302280" lon="-121.103080">
        <ele>93.567</ele>
        <time>2018-12-28T20:46:37Z</time>
      </trkpt>
      <trkpt lat="37.303180" lon="-121.103310">
        <ele>89.416</ele>
        <time>2018-12-28T20:46:57Z</time>
      </trkpt>
      <trkpt lat="37.304050" lon="-121.103520">
        <ele>83.076</ele>
        <time>2018-12-28T20:47:17Z</time>
      </trkpt>
      <trkpt lat="37.304260" lon="-121.103580">
        <ele>84.613</ele>
        <time>2018-12-28T20:47:37Z</time>
      </trkpt>
      <trkpt lat="37.304470" lon="-121.103630">
        <ele>86.608</ele>
        <time>2018-12-28T20:47:57Z</time>
      </trkpt>
      <trkpt lat="37.305500" lon="-121.103900">
        <ele>87.074</ele>
        <time>2018-12-28T20:48:17Z</time>
      </trkpt>
      <trkpt lat="37.306920" lon="-121.104260">
        <ele>82.862</ele>
        <time>2018-12-28T20:48:37Z</time>
      </trkpt>
      <trkpt lat="37.308210" lon="-121.104590">
        <ele>85.477</ele>
        <time>2018-12-28T20:48:57Z</time>
      </trkpt>
      <trkpt lat="37.308690" lon="-121.104710">
        <ele>78.896</ele>
        <time>2018-12-28T20:49:17Z</time>
      </trkpt>
      <trkpt lat="37.309100" lon="-121.104820">
        <ele>76.120</ele>
        <time>2018-12-28T20:49:37Z</time>
      </trkpt>
      <trkpt lat="37.309620" lon="-121.104950">
        <ele>76.813</ele>
        <time>2018-12-28T20:49:57Z</time>
      </trkpt>
      <trkpt lat="37.310010" lon="-121.105050">
        <ele>74.427</ele>
        <time>2018-12-28T20:50:17Z</time>
      </trkpt>
      <trkpt lat="37.310530" lon="-121.105190">
        <ele>73.540</ele>
        <time>2018-12-28T20:50:37Z</time>
      </trkpt>
      <trkpt lat="37.311300" lon="-121.105380">
        <ele>79.635</ele>
        <time>2018-12-28T20:50:57Z</time>
      </trkpt>
      <trkpt lat="37.311810" lon="-121.105520">
        <ele>84.786</ele>
        <time>2018-12-28T20:51:17Z</time>
      </trkpt>
      <trkpt lat="37.312580" lon="-121.105720">
        <ele>88.514</ele>
        <time>2018-12-28T20:51:37Z</time>
      </trkpt>
      <trkpt lat="37.313360" lon="-121.105920">
        <ele>92.008</ele>
        <time>2018-12-28T20:51:57Z</time>
      </trkpt>
      <trkpt lat="37.314260" lon="-121.106180">
        <ele>90.316</ele>
        <time>2018-12-28T20:52:17Z</time>
      </trkpt>
      <trkpt lat="37.315410" lon="-121.106520">
        <ele>83.564</ele>
        <time>2018-12-28T20:52:37Z</time>
      </trkpt>
      <trkpt lat="37.316010" lon="-121.106710">
        <ele>89.489</ele>
        <time>2018-12-28T20:52:57Z</time>
      </trkpt>
      <trkpt lat="37.316550" lon="-121.106890">
        <ele>89.858</ele>
        <time>2018-12-28T20:53:17Z</time>
      </trkpt>
      <trkpt lat="37.316800" lon="-121.106970">
        <ele>89.522</ele>
        <time>2018-12-28T20:53:37Z</time>
      </trkpt>
      <trkpt lat="37.317440" lon="-121.107170">
        <ele>86.745</ele>
        <time>2018-12-28T20:53:57Z</time>
      </trkpt>
      <trkpt lat="37.318350" lon="-121.107470">
        <ele>60.999</ele>
        <time>2018-12-28T20:54:17Z</time>
      </trkpt>
      <trkpt lat="37.318600" lon="-121.107560">
        <ele>59.132</ele>
        <time>2018-12-28T20:54:37Z</time>
      </trkpt>
      <trkpt lat="37.318830" lon="-121.107630">
        <ele>58.191</ele>
        <time>2018-12-28T20:54:57Z</time>
      </trkpt>
      <trkpt lat="37.319070" lon="-121.107710">
        <ele>57.581</ele>
        <time>2018-12-28T20:55:17Z</time>
      </trkpt>
      <trkpt lat="37.319750" lon="-121.107930">
        <ele>56.919</ele>
        <time>2018-12-28T20:55:37Z</time>
      </trkpt>
      <trkpt lat="37.321530" lon="-121.108510">
        <ele>56.308</ele>
        <time>2018-12-28T20:55:57Z</time>
      </trkpt>
      <trkpt lat="37.322900" lon="-121.108960">
        <ele>56.262</ele>
        <time>2018-12-28T20:56:17Z</time>
      </trkpt>
      <trkpt lat="37.323080" lon="-121.109010">
        <ele>56.220</ele>
        <time>2018-12-28T20:56:37Z</time>
      </trkpt>
      <trkpt lat="37.328000" lon="-121.110620">
        <ele>55.855</ele>
        <time>2018-12-28T20:56:57Z</time>
      </trkpt>
      <trkpt lat="37.328310" lon="-121.110720">
        <ele>55.794</ele>
        <time>2018-12-28T20:57:17Z</time>
      </trkpt>
      <trkpt lat="37.330180" lon="-121.111330">
        <ele>55.988</ele>
        <time>2018-12-28T20:57:37Z</time>
      </trkpt>
      <trkpt lat="37.331200" lon="-121.111660">
        <ele>55.031</ele>
        <time>2018-12-28T20:57:57Z</time>
      </trkpt>
      <trkpt lat="37.332350" lon="-121.112040">
        <ele>57.655</ele>
        <time>2018-12-28T20:58:17Z</time>
      </trkpt>
      <trkpt lat="37.333620" lon="-121.112440">
        <ele>63.938</ele>
        <time>2018-12-28T20:58:37Z</time>
      </trkpt>
      <trkpt lat="37.334760" lon="-121.112810">
        <ele>71.428</ele>
        <time>2018-12-28T20:58:57Z</time>
      </trkpt>
      <trkpt lat="37.335370" lon="-121.113010">
        <ele>71.289</ele>
        <time>2018-12-28T20:59:17Z</time>
      </trkpt>
      <trkpt lat="37.336000" lon="-121.113210">
        <ele>77.517</ele>
        <time>2018-12-28T20:59:37Z</time>
      </trkpt>
      <trkpt lat="37.336160" lon="-121.113260">
        <ele>79.708</ele>
        <time>2018-12-28T20:59:57Z</time>
      </trkpt>
      <trkpt lat="37.336410" lon="-121.113340">
        <ele>81.985</ele>
        <time>2018-12-28T21:00:17Z</time>
      </trkpt>
      <trkpt lat="37.336660" lon="-121.113420">
        <ele>82.053</ele>
        <time>2018-12-28T21:00:37Z</time>
      </trkpt>
      <trkpt lat="37.337020" lon="-121.113540">
        <ele>79.118</ele>
        <time>2018-12-28T21:00:57Z</time>
      </trkpt>
      <trkpt lat="37.337300" lon="-121.113640">
        <ele>76.367</ele>
        <time>2018-12-28T21:01:17Z</time>
      </trkpt>
      <trkpt lat="37.337690" lon="-121.113780">
        <ele>68.661</ele>
        <time>2018-12-28T21:01:37Z</time>
      </trkpt>
      <trkpt lat="37.337820" lon="-121.113820">
        <ele>66.324</ele>
        <time>2018-12-28T21:01:57Z</time>
      </trkpt>
      <trkpt lat="37.340620" lon="-121.114720">
        <ele>77.828</ele>
        <time>2018-12-28T21:02:17Z</time>
      </trkpt>
      <trkpt lat="37.341120" lon="-121.114890">
        <ele>79.581</ele>
        <time>2018-12-28T21:02:37Z</time>
      </trkpt>
      <trkpt lat="37.341370" lon="-121.114970">
        <ele>81.028</ele>
        <time>2018-12-28T21:02:57Z</time>
      </trkpt>
      <trkpt lat="37.343020" lon="-121.115510">
        <ele>79.289</ele>
        <time>2018-12-28T21:03:17Z</time>
      </trkpt>
      <trkpt lat="37.344800" lon="-121.116080">
        <ele>78.917</ele>
        <time>2018-12-28T21:03:37Z</time>
      </trkpt>
      <trkpt lat="37.345190" lon="-121.116210">
        <ele>82.208</ele>
        <time>2018-12-28T21:03:57Z</time>
      </trkpt>
      <trkpt lat="37.345570" lon="-121.116340">
        <ele>86.115</ele>
        <time>2018-12-28T21:04:17Z</time>
      </trkpt>
      <trkpt lat="37.346080" lon="-121.116520">
        <ele>88.683</ele>
        <time>2018-12-28T21:04:37Z</time>
      </trkpt>
      <trkpt lat="37.346720" lon="-121.116720">
        <ele>88.778</ele>
        <time>2018-12-28T21:04:57Z</time>
      </trkpt>
      <trkpt lat="37.347350" lon="-121.116930">
        <ele>85.837</ele>
        <time>2018-12-28T21:05:17Z</time>
      </trkpt>
      <trkpt lat="37.348120" lon="-121.117170">
        <ele>84.571</ele>
        <time>2018-12-28T21:05:37Z</time>
      </trkpt>
      <trkpt lat="37.348750" lon="-121.117360">
        <ele>73.064</ele>
        <time>2018-12-28T21:05:57Z</time>
      </trkpt>
      <trkpt lat="37.349130" lon="-121.117480">
        <ele>68.948</ele>
        <time>2018-12-28T21:06:17Z</time>
      </trkpt>
      <trkpt lat="37.349640" lon="-121.117650">
        <ele>69.521</ele>
        <time>2018-12-28T21:06:37Z</time>
      </trkpt>
      <trkpt lat="37.349990" lon="-121.117770">
        <ele>74.961</ele>
        <time>2018-12-28T21:06:57Z</time>
      </trkpt>
      <trkpt lat="37.350280" lon="-121.117870">
        <ele>78.921</ele>
        <time>2018-12-28T21:07:17Z</time>
      </trkpt>
      <trkpt lat="37.350660" lon="-121.117990">
        <ele>78.313</ele>
        <time>2018-12-28T21:07:37Z</time>
      </trkpt>
      <trkpt lat="37.351290" lon="-121.118190">
        <ele>73.308</ele>
        <time>2018-12-28T21:07:57Z</time>
      </trkpt>
      <trkpt lat="37.351680" lon="-121.118320">
        <ele>76.889</ele>
        <time>2018-12-28T21:08:17Z</time>
      </trkpt>
      <trkpt lat="37.352190" lon="-121.118500">
        <ele>84.727</ele>
        <time>2018-12-28T21:08:37Z</time>
      </trkpt>
      <trkpt lat="37.352570" lon="-121.118630">
        <ele>88.522</ele>
        <time>2018-12-28T21:08:57Z</time>
      </trkpt>
      <trkpt lat="37.352950" lon="-121.118750">
        <ele>88.441</ele>
        <time>2018-12-28T21:09:17Z</time>
      </trkpt>
      <trkpt lat="37.353590" lon="-121.118950">
        <ele>82.655</ele>
        <time>2018-12-28T21:09:37Z</time>
      </trkpt>
      <trkpt lat="37.354100" lon="-121.119110">
        <ele>75.288</ele>
        <time>2018-12-28T21:09:57Z</time>
      </trkpt>
      <trkpt lat="37.354350" lon="-121.119190">
        <ele>72.272</ele>
        <time>2018-12-28T21:10:17Z</time>
      </trkpt>
      <trkpt lat="37.354480" lon="-121.119230">
        <ele>71.495</ele>
        <time>2018-12-28T21:10:37Z</time>
      </trkpt>
      <trkpt lat="37.354730" lon="-121.119310">
        <ele>72.533</ele>
        <time>2018-12-28T21:10:57Z</time>
      </trkpt>
      <trkpt lat="37.354950" lon="-121.119390">
        <ele>75.023</ele>
        <time>2018-12-28T21:11:17Z</time>
      </trkpt>
      <trkpt lat="37.355370" lon="-121.119530">
        <ele>79.415</ele>
        <time>2018-12-28T21:11:37Z</time>
      </trkpt>
      <trkpt lat="37.355450" lon="-121.119550">
        <ele>79.908</ele>
        <time>2018-12-28T21:11:57Z</time>
      </trkpt>
      <trkpt lat="37.355750" lon="-121.119650">
        <ele>80.646</ele>
        <time>2018-12-28T21:12:17Z</time>
      </trkpt>
      <trkpt lat="37.356130" lon="-121.119780">
        <ele>79.324</ele>
        <time>2018-12-28T21:12:37Z</time>
      </trkpt>
      <trkpt lat="37.356380" lon="-121.119860">
        <ele>77.689</ele>
        <time>2018-12-28T21:12:57Z</time>
      </trkpt>
      <trkpt lat="37.356510" lon="-121.119900">
        <ele>76.738</ele>
        <time>2018-12-28T21:13:17Z</time>
      </trkpt>
      <trkpt lat="37.357020" lon="-121.120070">
        <ele>78.742</ele>
        <time>2018-12-28T21:13:37Z</time>
      </trkpt>
      <trkpt lat="37.357660" lon="-121.120280">
        <ele>83.555</ele>
        <time>2018-12-28T21:13:57Z</time>
      </trkpt>
      <trkpt lat="37.358170" lon="-121.120450">
        <ele>86.829</ele>
        <time>2018-12-28T21:14:17Z</time>
      </trkpt>
      <trkpt lat="37.359060" lon="-121.120730">
        <ele>78.072</ele>
        <time>2018-12-28T21:14:37Z</time>
      </trkpt>
      <trkpt lat="37.359690" lon="-121.120940">
        <ele>73.497</ele>
        <time>2018-12-28T21:14:57Z</time>
      </trkpt>
      <trkpt lat="37.360580" lon="-121.121230">
        <ele>79.323</ele>
        <time>2018-12-28T21:15:17Z</time>
      </trkpt>
      <trkpt lat="37.361220" lon="-121.121430">
        <ele>74.525</ele>
        <time>2018-12-28T21:15:37Z</time>
      </trkpt>
      <trkpt lat="37.362370" lon="-121.121810">
        <ele>77.908</ele>
        <time>2018-12-28T21:15:57Z</time>
      </trkpt>
      <trkpt lat="37.362870" lon="-121.121970">
        <ele>78.642</ele>
        <time>2018-12-28T21:16:17Z</time>
      </trkpt>
      <trkpt lat="37.363260" lon="-121.122100">
        <ele>75.650</ele>
        <time>2018-12-28T21:16:37Z</time>
      </trkpt>
      <trkpt lat="37.364020" lon="-121.122340">
        <ele>75.485</ele>
        <time>2018-12-28T21:16:57Z</time>
      </trkpt>
      <trkpt lat="37.364910" lon="-121.122640">
        <ele>82.944</ele>
        <time>2018-12-28T21:17:17Z</time>
      </trkpt>
      <trkpt lat="37.365930" lon="-121.122970">
        <ele>87.798</ele>
        <time>2018-12-28T21:17:37Z</time>
      </trkpt>
      <trkpt lat="37.366820" lon="-121.123260">
        <ele>81.771</ele>
        <time>2018-12-28T21:17:57Z</time>
      </trkpt>
      <trkpt lat="37.367670" lon="-121.123540">
        <ele>79.515</ele>
        <time>2018-12-28T21:18:17Z</time>
      </trkpt>
      <trkpt lat="37.369370" lon="-121.124090">
        <ele>87.818</ele>
        <time>2018-12-28T21:18:37Z</time>
      </trkpt>
      <trkpt lat="37.370260" lon="-121.124380">
        <ele>74.686</ele>
        <time>2018-12-28T21:18:57Z</time>
      </trkpt>
      <trkpt lat="37.370770" lon="-121.124540">
        <ele>73.660</ele>
        <time>2018-12-28T21:19:17Z</time>
      </trkpt>
      <trkpt lat="37.371400" lon="-121.124750">
        <ele>73.626</ele>
        <time>2018-12-28T21:19:37Z</time>
      </trkpt>
      <trkpt lat="37.372170" lon="-121.125000">
        <ele>73.508</ele>
        <time>2018-12-28T21:19:57Z</time>
      </trkpt>
      <trkpt lat="37.373560" lon="-121.125460">
        <ele>74.231</ele>
        <time>2018-12-28T21:20:17Z</time>
      </trkpt>
      <trkpt lat="37.374450" lon="-121.125750">
        <ele>73.839</ele>
        <time>2018-12-28T21:20:37Z</time>
      </trkpt>
      <trkpt lat="37.375340" lon="-121.126040">
        <ele>73.674</ele>
        <time>2018-12-28T21:20:57Z</time>
      </trkpt>
      <trkpt lat="37.376110" lon="-121.126290">
        <ele>73.833</ele>
        <time>2018-12-28T21:21:17Z</time>
      </trkpt>
      <trkpt lat="37.376870" lon="-121.126540">
        <ele>74.017</ele>
        <time>2018-12-28T21:21:37Z</time>
      </trkpt>
      <trkpt lat="37.377770" lon="-121.126830">
        <ele>74.150</ele>
        <time>2018-12-28T21:21:57Z</time>
      </trkpt>
      <trkpt lat="37.378900" lon="-121.127200">
        <ele>74.264</ele>
        <time>2018-12-28T21:22:17Z</time>
      </trkpt>
      <trkpt lat="37.379410" lon="-121.127370">
        <ele>74.257</ele>
        <time>2018-12-28T21:22:37Z</time>
      </trkpt>
      <trkpt lat="37.379800" lon="-121.127490">
        <ele>74.288</ele>
        <time>2018-12-28T21:22:57Z</time>
      </trkpt>
      <trkpt lat="37.380430" lon="-121.127700">
        <ele>74.124</ele>
        <time>2018-12-28T21:23:17Z</time>
      </trkpt>
      <trkpt lat="37.380940" lon="-121.127860">
        <ele>74.126</ele>
        <time>2018-12-28T21:23:37Z</time>
      </trkpt>
      <trkpt lat="37.381330" lon="-121.127990">
        <ele>74.108</ele>
        <time>2018-12-28T21:23:57Z</time>
      </trkpt>
      <trkpt lat="37.381960" lon="-121.128200">
        <ele>74.281</ele>
        <time>2018-12-28T21:24:17Z</time>
      </trkpt>
      <trkpt lat="37.382340" lon="-121.128330">
        <ele>74.239</ele>
        <time>2018-12-28T21:24:37Z</time>
      </trkpt>
      <trkpt lat="37.382600" lon="-121.128430">
        <ele>74.264</ele>
        <time>2018-12-28T21:24:57Z</time>
      </trkpt>
      <trkpt lat="37.382810" lon="-121.128510">
        <ele>74.223</ele>
        <time>2018-12-28T21:25:17Z</time>
      </trkpt>
      <trkpt lat="37.383100" lon="-121.128620">
        <ele>74.217</ele>
        <time>2018-12-28T21:25:37Z</time>
      </trkpt>
      <trkpt lat="37.383220" lon="-121.128670">
        <ele>74.250</ele>
        <time>2018-12-28T21:25:57Z</time>
      </trkpt>
      <trkpt lat="37.383340" lon="-121.128730">
        <ele>74.254</ele>
        <time>2018-12-28T21:26:17Z</time>
      </trkpt>
      <trkpt lat="37.383470" lon="-121.128780">
        <ele>74.397</ele>
        <time>2018-12-28T21:26:37Z</time>
      </trkpt>
      <trkpt lat="37.383590" lon="-121.128840">
        <ele>74.471</ele>
        <time>2018-12-28T21:26:57Z</time>
      </trkpt>
      <trkpt lat="37.383970" lon="-121.129000">
        <ele>76.341</ele>
        <time>2018-12-28T21:27:17Z</time>
      </trkpt>
      <trkpt lat="37.384340" lon="-121.129180">
        <ele>79.215</ele>
        <time>2018-12-28T21:27:37Z</time>
      </trkpt>
      <trkpt lat="37.384700" lon="-121.129360">
        <ele>80.708</ele>
        <time>2018-12-28T21:27:57Z</time>
      </trkpt>
      <trkpt lat="37.385190" lon="-121.129620">
        <ele>81.580</ele>
        <time>2018-12-28T21:28:17Z</time>
      </trkpt>
      <trkpt lat="37.385660" lon="-121.129890">
        <ele>82.278</ele>
        <time>2018-12-28T21:28:37Z</time>
      </trkpt>
      <trkpt lat="37.385900" lon="-121.130040">
        <ele>83.933</ele>
        <time>2018-12-28T21:28:57Z</time>
      </trkpt>
      <trkpt lat="37.386250" lon="-121.130250">
        <ele>86.352</ele>
        <time>2018-12-28T21:29:17Z</time>
      </trkpt>
      <trkpt lat="37.386600" lon="-121.130480">
        <ele>87.686</ele>
        <time>2018-12-28T21:29:37Z</time>
      </trkpt>
      <trkpt lat="37.386830" lon="-121.130640">
        <ele>87.929</ele>
        <time>2018-12-28T21:29:57Z</time>
      </trkpt>
      <trkpt lat="37.387180" lon="-121.130880">
        <ele>86.123</ele>
        <time>2018-12-28T21:30:17Z</time>
      </trkpt>
      <trkpt lat="37.387740" lon="-121.131280">
        <ele>77.966</ele>
        <time>2018-12-28T21:30:37Z</time>
      </trkpt>
      <trkpt lat="37.387950" lon="-121.131430">
        <ele>78.487</ele>
        <time>2018-12-28T21:30:57Z</time>
      </trkpt>
      <trkpt lat="37.388440" lon="-121.131770">
        <ele>75.242</ele>
        <time>2018-12-28T21:31:17Z</time>
      </trkpt>
      <trkpt lat="37.388670" lon="-121.131940">
        <ele>72.926</ele>
        <time>2018-12-28T21:31:37Z</time>
      </trkpt>
      <trkpt lat="37.388860" lon="-121.132080">
        <ele>72.508</ele>
        <time>2018-12-28T21:31:57Z</time>
      </trkpt>
      <trkpt lat="37.389090" lon="-121.132240">
        <ele>73.651</ele>
        <time>2018-12-28T21:32:17Z</time>
      </trkpt>
      <trkpt lat="37.389470" lon="-121.132490">
        <ele>78.339</ele>
        <time>2018-12-28T21:32:37Z</time>
      </trkpt>
      <trkpt lat="37.389660" lon="-121.132620">
        <ele>81.174</ele>
        <time>2018-12-28T21:32:57Z</time>
      </trkpt>
      <trkpt lat="37.390380" lon="-121.133110">
        <ele>88.743</ele>
        <time>2018-12-28T21:33:17Z</time>
      </trkpt>
      <trkpt lat="37.391540" lon="-121.133900">
        <ele>93.577</ele>
        <time>2018-12-28T21:33:37Z</time>
      </trkpt>
      <trkpt lat="37.393480" lon="-121.135270">
        <ele>83.270</ele>
        <time>2018-12-28T21:33:57Z</time>
      </trkpt>
      <trkpt lat="37.394290" lon="-121.135830">
        <ele>88.644</ele>
        <time>2018-12-28T21:34:17Z</time>
      </trkpt>
      <trkpt lat="37.394760" lon="-121.136180">
        <ele>76.687</ele>
        <time>2018-12-28T21:34:37Z</time>
      </trkpt>
      <trkpt lat="37.395200" lon="-121.136480">
        <ele>79.275</ele>
        <time>2018-12-28T21:34:57Z</time>
      </trkpt>
      <trkpt lat="37.396450" lon="-121.137370">
        <ele>70.828</ele>
        <time>2018-12-28T21:35:17Z</time>
      </trkpt>
      <trkpt lat="37.396690" lon="-121.137540">
        <ele>68.420</ele>
        <time>2018-12-28T21:35:37Z</time>
      </trkpt>
      <trkpt lat="37.397200" lon="-121.137890">
        <ele>69.108</ele>
        <time>2018-12-28T21:35:57Z</time>
      </trkpt>
      <trkpt lat="37.397470" lon="-121.138080">
        <ele>70.080</ele>
        <time>2018-12-28T21:36:17Z</time>
      </trkpt>
      <trkpt lat="37.397750" lon="-121.138270">
        <ele>71.048</ele>
        <time>2018-12-28T21:36:37Z</time>
      </trkpt>
      <trkpt lat="37.397870" lon="-121.138350">
        <ele>71.383</ele>
        <time>2018-12-28T21:36:57Z</time>
      </trkpt>
      <trkpt lat="37.399650" lon="-121.139580">
        <ele>73.112</ele>
        <time>2018-12-28T21:37:17Z</time>
      </trkpt>
      <trkpt lat="37.399810" lon="-121.139690">
        <ele>73.146</ele>
        <time>2018-12-28T21:37:37Z</time>
      </trkpt>
      <trkpt lat="37.400140" lon="-121.139930">
        <ele>73.229</ele>
        <time>2018-12-28T21:37:57Z</time>
      </trkpt>
      <trkpt lat="37.400450" lon="-121.140140">
        <ele>73.333</ele>
        <time>2018-12-28T21:38:17Z</time>
      </trkpt>
      <trkpt lat="37.400680" lon="-121.140300">
        <ele>73.396</ele>
        <time>2018-12-28T21:38:37Z</time>
      </trkpt>
      <trkpt lat="37.400910" lon="-121.140460">
        <ele>73.491</ele>
        <time>2018-12-28T21:38:57Z</time>
      </trkpt>
      <trkpt lat="37.401140" lon="-121.140620">
        <ele>73.581</ele>
        <time>2018-12-28T21:39:17Z</time>
      </trkpt>
      <trkpt lat="37.401270" lon="-121.140720">
        <ele>73.519</ele>
        <time>2018-12-28T21:39:37Z</time>
      </trkpt>
      <trkpt lat="37.401600" lon="-121.140950">
        <ele>73.608</ele>
        <time>2018-12-28T21:39:57Z</time>
      </trkpt>
      <trkpt lat="37.401950" lon="-121.141180">
        <ele>73.792</ele>
        <time>2018-12-28T21:40:17Z</time>
      </trkpt>
      <trkpt lat="37.402290" lon="-121.141430">
        <ele>74.010</ele>
        <time>2018-12-28T21:40:37Z</time>
      </trkpt>
      <trkpt lat="37.402750" lon="-121.141750">
        <ele>74.685</ele>
        <time>2018-12-28T21:40:57Z</time>
      </trkpt>
      <trkpt lat="37.403210" lon="-121.142070">
        <ele>75.254</ele>
        <time>2018-12-28T21:41:17Z</time>
      </trkpt>
      <trkpt lat="37.403670" lon="-121.142390">
        <ele>75.648</ele>
        <time>2018-12-28T21:41:37Z</time>
      </trkpt>
      <trkpt lat="37.404140" lon="-121.142720">
        <ele>75.931</ele>
        <time>2018-12-28T21:41:57Z</time>
      </trkpt>
      <trkpt lat="37.404710" lon="-121.143120">
        <ele>76.425</ele>
        <time>2018-12-28T21:42:17Z</time>
      </trkpt>
      <trkpt lat="37.405280" lon="-121.143510">
        <ele>76.888</ele>
        <time>2018-12-28T21:42:37Z</time>
      </trkpt>
      <trkpt lat="37.405850" lon="-121.143910">
        <ele>77.395</ele>
        <time>2018-12-28T21:42:57Z</time>
      </trkpt>
      <trkpt lat="37.406080" lon="-121.144070">
        <ele>77.549</ele>
        <time>2018-12-28T21:43:17Z</time>
      </trkpt>
      <trkpt lat="37.406540" lon="-121.144390">
        <ele>77.823</ele>
        <time>2018-12-28T21:43:37Z</time>
      </trkpt>
      <trkpt lat="37.407000" lon="-121.144710">
        <ele>78.208</ele>
        <time>2018-12-28T21:43:57Z</time>
      </trkpt>
      <trkpt lat="37.407350" lon="-121.144950">
        <ele>78.682</ele>
        <time>2018-12-28T21:44:17Z</time>
      </trkpt>
      <trkpt lat="37.407810" lon="-121.145270">
        <ele>79.410</ele>
        <time>2018-12-28T21:44:37Z</time>
      </trkpt>
      <trkpt lat="37.408150" lon="-121.145510">
        <ele>80.035</ele>
        <time>2018-12-28T21:44:57Z</time>
      </trkpt>
      <trkpt lat="37.408610" lon="-121.145820">
        <ele>82.844</ele>
        <time>2018-12-28T21:45:17Z</time>
      </trkpt>
      <trkpt lat="37.408950" lon="-121.146060">
        <ele>85.538</ele>
        <time>2018-12-28T21:45:37Z</time>
      </trkpt>
      <trkpt lat="37.409180" lon="-121.146210">
        <ele>86.441</ele>
        <time>2018-12-28T21:45:57Z</time>
      </trkpt>
      <trkpt lat="37.409420" lon="-121.146380">
        <ele>86.385</ele>
        <time>2018-12-28T21:46:17Z</time>
      </trkpt>
      <trkpt lat="37.409770" lon="-121.146640">
        <ele>84.728</ele>
        <time>2018-12-28T21:46:37Z</time>
      </trkpt>
      <trkpt lat="37.411610" lon="-121.147870">
        <ele>92.816</ele>
        <time>2018-12-28T21:46:57Z</time>
      </trkpt>
      <trkpt lat="37.412320" lon="-121.148300">
        <ele>100.376</ele>
        <time>2018-12-28T21:47:17Z</time>
      </trkpt>
      <trkpt lat="37.412910" lon="-121.148650">
        <ele>102.013</ele>
        <time>2018-12-28T21:47:37Z</time>
      </trkpt>
      <trkpt lat="37.413400" lon="-121.148930">
        <ele>104.908</ele>
        <time>2018-12-28T21:47:57Z</time>
      </trkpt>
      <trkpt lat="37.413880" lon="-121.149180">
        <ele>107.064</ele>
        <time>2018-12-28T21:48:17Z</time>
      </trkpt>
      <trkpt lat="37.418020" lon="-121.151310">
        <ele>97.622</ele>
        <time>2018-12-28T21:48:37Z</time>
      </trkpt>
      <trkpt lat="37.418630" lon="-121.151570">
        <ele>103.817</ele>
        <time>2018-12-28T21:48:57Z</time>
      </trkpt>
      <trkpt lat="37.420690" lon="-121.152630">
        <ele>91.196</ele>
        <time>2018-12-28T21:49:17Z</time>
      </trkpt>
      <trkpt lat="37.420980" lon="-121.152780">
        <ele>81.210</ele>
        <time>2018-12-28T21:49:37Z</time>
      </trkpt>
      <trkpt lat="37.421270" lon="-121.152940">
        <ele>78.963</ele>
        <time>2018-12-28T21:49:57Z</time>
      </trkpt>
      <trkpt lat="37.421920" lon="-121.153270">
        <ele>76.437</ele>
        <time>2018-12-28T21:50:17Z</time>
      </trkpt>
      <trkpt lat="37.424210" lon="-121.154410">
        <ele>73.590</ele>
        <time>2018-12-28T21:50:37Z</time>
      </trkpt>
      <trkpt lat="37.424530" lon="-121.154580">
        <ele>73.721</ele>
        <time>2018-12-28T21:50:57Z</time>
      </trkpt>
      <trkpt lat="37.424650" lon="-121.154640">
        <ele>74.141</ele>
        <time>2018-12-28T21:51:17Z</time>
      </trkpt>
      <trkpt lat="37.425520" lon="-121.155060">
        <ele>79.105</ele>
        <time>2018-12-28T21:51:37Z</time>
      </trkpt>
      <trkpt lat="37.427020" lon="-121.155810">
        <ele>103.208</ele>
        <time>2018-12-28T21:51:57Z</time>
      </trkpt>
      <trkpt lat="37.427190" lon="-121.155900">
        <ele>105.955</ele>
        <time>2018-12-28T21:52:17Z</time>
      </trkpt>
      <trkpt lat="37.427710" lon="-121.156150">
        <ele>109.693</ele>
        <time>2018-12-28T21:52:37Z</time>
      </trkpt>
      <trkpt lat="37.428300" lon="-121.156440">
        <ele>103.018</ele>
        <time>2018-12-28T21:52:57Z</time>
      </trkpt>
      <trkpt lat="37.430900" lon="-121.157730">
        <ele>105.997</ele>
        <time>2018-12-28T21:53:17Z</time>
      </trkpt>
      <trkpt lat="37.433980" lon="-121.159250">
        <ele>90.861</ele>
        <time>2018-12-28T21:53:37Z</time>
      </trkpt>
      <trkpt lat="37.435660" lon="-121.160080">
        <ele>99.174</ele>
        <time>2018-12-28T21:53:57Z</time>
      </trkpt>
      <trkpt lat="37.436950" lon="-121.160690">
        <ele>78.648</ele>
        <time>2018-12-28T21:54:17Z</time>
      </trkpt>
      <trkpt lat="37.437330" lon="-121.160890">
        <ele>75.381</ele>
        <time>2018-12-28T21:54:37Z</time>
      </trkpt>
      <trkpt lat="37.438220" lon="-121.161380">
        <ele>84.042</ele>
        <time>2018-12-28T21:54:57Z</time>
      </trkpt>
      <trkpt lat="37.440340" lon="-121.162710">
        <ele>79.622</ele>
        <time>2018-12-28T21:55:17Z</time>
      </trkpt>
      <trkpt lat="37.441450" lon="-121.163510">
        <ele>79.214</ele>
        <time>2018-12-28T21:55:37Z</time>
      </trkpt>
      <trkpt lat="37.442200" lon="-121.164070">
        <ele>83.708</ele>
        <time>2018-12-28T21:55:57Z</time>
      </trkpt>
      <trkpt lat="37.442490" lon="-121.164290">
        <ele>84.967</ele>
        <time>2018-12-28T21:56:17Z</time>
      </trkpt>
      <trkpt lat="37.442950" lon="-121.164620">
        <ele>83.435</ele>
        <time>2018-12-28T21:56:37Z</time>
      </trkpt>
      <trkpt lat="37.443440" lon="-121.164950">
        <ele>82.390</ele>
        <time>2018-12-28T21:56:57Z</time>
      </trkpt>
      <trkpt lat="37.443780" lon="-121.165210">
        <ele>85.649</ele>
        <time>2018-12-28T21:57:17Z</time>
      </trkpt>
      <trkpt lat="37.444120" lon="-121.165460">
        <ele>84.863</ele>
        <time>2018-12-28T21:57:37Z</time>
      </trkpt>
      <trkpt lat="37.444690" lon="-121.165860">
        <ele>83.256</ele>
        <time>2018-12-28T21:57:57Z</time>
      </trkpt>
      <trkpt lat="37.445110" lon="-121.166190">
        <ele>87.690</ele>
        <time>2018-12-28T21:58:17Z</time>
      </trkpt>
      <trkpt lat="37.445830" lon="-121.166700">
        <ele>81.943</ele>
        <time>2018-12-28T21:58:37Z</time>
      </trkpt>
      <trkpt lat="37.446020" lon="-121.166840">
        <ele>83.527</ele>
        <time>2018-12-28T21:58:57Z</time>
      </trkpt>
      <trkpt lat="37.446700" lon="-121.167360">
        <ele>90.268</ele>
        <time>2018-12-28T21:59:17Z</time>
      </trkpt>
      <trkpt lat="37.447850" lon="-121.168180">
        <ele>84.014</ele>
        <time>2018-12-28T21:59:37Z</time>
      </trkpt>
      <trkpt lat="37.448520" lon="-121.168680">
        <ele>87.108</ele>
        <time>2018-12-28T21:59:57Z</time>
      </trkpt>
      <trkpt lat="37.449550" lon="-121.169410">
        <ele>76.215</ele>
        <time>2018-12-28T22:00:17Z</time>
      </trkpt>
      <trkpt lat="37.450080" lon="-121.169790">
        <ele>72.893</ele>
        <time>2018-12-28T22:00:37Z</time>
      </trkpt>
      <trkpt lat="37.451020" lon="-121.170490">
        <ele>81.198</ele>
        <time>2018-12-28T22:00:57Z</time>
      </trkpt>
      <trkpt lat="37.451250" lon="-121.170670">
        <ele>82.427</ele>
        <time>2018-12-28T22:01:17Z</time>
      </trkpt>
      <trkpt lat="37.451720" lon="-121.171000">
        <ele>78.851</ele>
        <time>2018-12-28T22:01:37Z</time>
      </trkpt>
      <trkpt lat="37.452050" lon="-121.171230">
        <ele>73.484</ele>
        <time>2018-12-28T22:01:57Z</time>
      </trkpt>
      <trkpt lat="37.452640" lon="-121.171660">
        <ele>76.448</ele>
        <time>2018-12-28T22:02:17Z</time>
      </trkpt>
      <trkpt lat="37.453560" lon="-121.172350">
        <ele>85.771</ele>
        <time>2018-12-28T22:02:37Z</time>
      </trkpt>
      <trkpt lat="37.454120" lon="-121.172750">
        <ele>85.251</ele>
        <time>2018-12-28T22:02:57Z</time>
      </trkpt>
      <trkpt lat="37.454550" lon="-121.173070">
        <ele>87.901</ele>
        <time>2018-12-28T22:03:17Z</time>
      </trkpt>
      <trkpt lat="37.454920" lon="-121.173350">
        <ele>94.611</ele>
        <time>2018-12-28T22:03:37Z</time>
      </trkpt>
      <trkpt lat="37.455210" lon="-121.173570">
        <ele>96.908</ele>
        <time>2018-12-28T22:03:57Z</time>
      </trkpt>
      <trkpt lat="37.455370" lon="-121.173680">
        <ele>96.558</ele>
        <time>2018-12-28T22:04:17Z</time>
      </trkpt>
      <trkpt lat="37.455690" lon="-121.173910">
        <ele>92.626</ele>
        <time>2018-12-28T22:04:37Z</time>
      </trkpt>
      <trkpt lat="37.456390" lon="-121.174390">
        <ele>77.661</ele>
        <time>2018-12-28T22:04:57Z</time>
      </trkpt>
      <trkpt lat="37.456810" lon="-121.174710">
        <ele>85.110</ele>
        <time>2018-12-28T22:05:17Z</time>
      </trkpt>
      <trkpt lat="37.457880" lon="-121.175500">
        <ele>89.984</ele>
        <time>2018-12-28T22:05:37Z</time>
      </trkpt>
      <trkpt lat="37.458340" lon="-121.175830">
        <ele>85.917</ele>
        <time>2018-12-28T22:05:57Z</time>
      </trkpt>
      <trkpt lat="37.458910" lon="-121.176230">
        <ele>73.631</ele>
        <time>2018-12-28T22:06:17Z</time>
      </trkpt>
      <trkpt lat="37.459250" lon="-121.176480">
        <ele>77.934</ele>
        <time>2018-12-28T22:06:37Z</time>
      </trkpt>
      <trkpt lat="37.459470" lon="-121.176650">
        <ele>81.519</ele>
        <time>2018-12-28T22:06:57Z</time>
      </trkpt>
      <trkpt lat="37.459690" lon="-121.176820">
        <ele>83.909</ele>
        <time>2018-12-28T22:07:17Z</time>
      </trkpt>
      <trkpt lat="37.460280" lon="-121.177240">
        <ele>84.219</ele>
        <time>2018-12-28T22:07:37Z</time>
      </trkpt>
      <trkpt lat="37.461100" lon="-121.177850">
        <ele>80.508</ele>
        <time>2018-12-28T22:07:57Z</time>
      </trkpt>
      <trkpt lat="37.461560" lon="-121.178210">
        <ele>81.044</ele>
        <time>2018-12-28T22:08:17Z</time>
      </trkpt>
      <trkpt lat="37.462510" lon="-121.179010">
        <ele>76.692</ele>
        <time>2018-12-28T22:08:37Z</time>
      </trkpt>
      <trkpt lat="37.463420" lon="-121.179840">
        <ele>72.317</ele>
        <time>2018-12-28T22:08:57Z</time>
      </trkpt>
      <trkpt lat="37.463700" lon="-121.180110">
        <ele>71.866</ele>
        <time>2018-12-28T22:09:17Z</time>
      </trkpt>
      <trkpt lat="37.463770" lon="-121.180170">
        <ele>71.570</ele>
        <time>2018-12-28T22:09:37Z</time>
      </trkpt>
      <trkpt lat="37.463980" lon="-121.180380">
        <ele>69.943</ele>
        <time>2018-12-28T22:09:57Z</time>
      </trkpt>
      <trkpt lat="37.464090" lon="-121.180490">
        <ele>68.957</ele>
        <time>2018-12-28T22:10:17Z</time>
      </trkpt>
      <trkpt lat="37.465890" lon="-121.182310">
        <ele>90.580</ele>
        <time>2018-12-28T22:10:37Z</time>
      </trkpt>
      <trkpt lat="37.466150" lon="-121.182590">
        <ele>89.629</ele>
        <time>2018-12-28T22:10:57Z</time>
      </trkpt>
      <trkpt lat="37.466440" lon="-121.182880">
        <ele>91.700</ele>
        <time>2018-12-28T22:11:17Z</time>
      </trkpt>
      <trkpt lat="37.467570" lon="-121.184010">
        <ele>96.220</ele>
        <time>2018-12-28T22:11:37Z</time>
      </trkpt>
      <trkpt lat="37.468180" lon="-121.184620">
        <ele>93.308</ele>
        <time>2018-12-28T22:11:57Z</time>
      </trkpt>
      <trkpt lat="37.468430" lon="-121.184880">
        <ele>83.035</ele>
        <time>2018-12-28T22:12:17Z</time>
      </trkpt>
      <trkpt lat="37.468490" lon="-121.184940">
        <ele>82.213</ele>
        <time>2018-12-28T22:12:37Z</time>
      </trkpt>
      <trkpt lat="37.468590" lon="-121.185040">
        <ele>84.678</ele>
        <time>2018-12-28T22:12:57Z</time>
      </trkpt>
      <trkpt lat="37.468790" lon="-121.185240">
        <ele>91.137</ele>
        <time>2018-12-28T22:13:17Z</time>
      </trkpt>
      <trkpt lat="37.469410" lon="-121.185860">
        <ele>99.831</ele>
        <time>2018-12-28T22:13:37Z</time>
      </trkpt>
      <trkpt lat="37.469930" lon="-121.186390">
        <ele>88.194</ele>
        <time>2018-12-28T22:13:57Z</time>
      </trkpt>
      <trkpt lat="37.470760" lon="-121.187220">
        <ele>106.318</ele>
        <time>2018-12-28T22:14:17Z</time>
      </trkpt>
      <trkpt lat="37.471690" lon="-121.188170">
        <ele>73.181</ele>
        <time>2018-12-28T22:14:37Z</time>
      </trkpt>
      <trkpt lat="37.472680" lon="-121.189140">
        <ele>103.618</ele>
        <time>2018-12-28T22:14:57Z</time>
      </trkpt>
      <trkpt lat="37.472890" lon="-121.189360">
        <ele>105.098</ele>
        <time>2018-12-28T22:15:17Z</time>
      </trkpt>
      <trkpt lat="37.473410" lon="-121.189900">
        <ele>89.817</ele>
        <time>2018-12-28T22:15:37Z</time>
      </trkpt>
      <trkpt lat="37.473520" lon="-121.190010">
        <ele>91.508</ele>
        <time>2018-12-28T22:15:57Z</time>
      </trkpt>
      <trkpt lat="37.473720" lon="-121.190200">
        <ele>100.274</ele>
        <time>2018-12-28T22:16:17Z</time>
      </trkpt>
      <trkpt lat="37.473920" lon="-121.190380">
        <ele>105.982</ele>
        <time>2018-12-28T22:16:37Z</time>
      </trkpt>
      <trkpt lat="37.474230" lon="-121.190700">
        <ele>107.427</ele>
        <time>2018-12-28T22:16:57Z</time>
      </trkpt>
      <trkpt lat="37.474740" lon="-121.191240">
        <ele>91.076</ele>
        <time>2018-12-28T22:17:17Z</time>
      </trkpt>
      <trkpt lat="37.474920" lon="-121.191430">
        <ele>89.750</ele>
        <time>2018-12-28T22:17:37Z</time>
      </trkpt>
      <trkpt lat="37.475470" lon="-121.191950">
        <ele>104.153</ele>
        <time>2018-12-28T22:17:57Z</time>
      </trkpt>
      <trkpt lat="37.476170" lon="-121.192660">
        <ele>107.767</ele>
        <time>2018-12-28T22:18:17Z</time>
      </trkpt>
      <trkpt lat="37.476330" lon="-121.192820">
        <ele>101.990</ele>
        <time>2018-12-28T22:18:37Z</time>
      </trkpt>
      <trkpt lat="37.476840" lon="-121.193330">
        <ele>103.894</ele>
        <time>2018-12-28T22:18:57Z</time>
      </trkpt>
      <trkpt lat="37.477000" lon="-121.193490">
        <ele>109.357</ele>
        <time>2018-12-28T22:19:17Z</time>
      </trkpt>
      <trkpt lat="37.477510" lon="-121.194010">
        <ele>105.722</ele>
        <time>2018-12-28T22:19:37Z</time>
      </trkpt>
      <trkpt lat="37.478130" lon="-121.194630">
        <ele>107.108</ele>
        <time>2018-12-28T22:19:57Z</time>
      </trkpt>
      <trkpt lat="37.478540" lon="-121.195040">
        <ele>103.972</ele>
        <time>2018-12-28T22:20:17Z</time>
      </trkpt>
      <trkpt lat="37.478940" lon="-121.195450">
        <ele>106.860</ele>
        <time>2018-12-28T22:20:37Z</time>
      </trkpt>
      <trkpt lat="37.480180" lon="-121.196720">
        <ele>93.945</ele>
        <time>2018-12-28T22:20:57Z</time>
      </trkpt>
      <trkpt lat="37.480380" lon="-121.196900">
        <ele>99.684</ele>
        <time>2018-12-28T22:21:17Z</time>
      </trkpt>
      <trkpt lat="37.480930" lon="-121.197440">
        <ele>106.478</ele>
        <time>2018-12-28T22:21:37Z</time>
      </trkpt>
      <trkpt lat="37.481380" lon="-121.197910">
        <ele>102.591</ele>
        <time>2018-12-28T22:21:57Z</time>
      </trkpt>
      <trkpt lat="37.482020" lon="-121.198550">
        <ele>103.885</ele>
        <time>2018-12-28T22:22:17Z</time>
      </trkpt>
      <trkpt lat="37.482530" lon="-121.199070">
        <ele>101.558</ele>
        <time>2018-12-28T22:22:37Z</time>
      </trkpt>
      <trkpt lat="37.483250" lon="-121.199790">
        <ele>102.896</ele>
        <time>2018-12-28T22:22:57Z</time>
      </trkpt>
      <trkpt lat="37.483460" lon="-121.200000">
        <ele>101.131</ele>
        <time>2018-12-28T22:23:17Z</time>
      </trkpt>
      <trkpt lat="37.484500" lon="-121.201040">
        <ele>98.824</ele>
        <time>2018-12-28T22:23:37Z</time>
      </trkpt>
      <trkpt lat="37.485620" lon="-121.202160">
        <ele>96.108</ele>
        <time>2018-12-28T22:23:57Z</time>
      </trkpt>
      <trkpt lat="37.486220" lon="-121.202770">
        <ele>93.862</ele>
        <time>2018-12-28T22:24:17Z</time>
      </trkpt>
      <trkpt lat="37.486640" lon="-121.203190">
        <ele>92.570</ele>
        <time>2018-12-28T22:24:37Z</time>
      </trkpt>
      <trkpt lat="37.486840" lon="-121.203410">
        <ele>90.255</ele>
        <time>2018-12-28T22:24:57Z</time>
      </trkpt>
      <trkpt lat="37.487260" lon="-121.203850">
        <ele>81.544</ele>
        <time>2018-12-28T22:25:17Z</time>
      </trkpt>
      <trkpt lat="37.487670" lon="-121.204290">
        <ele>74.678</ele>
        <time>2018-12-28T22:25:37Z</time>
      </trkpt>
      <trkpt lat="37.488930" lon="-121.205590">
        <ele>64.841</ele>
        <time>2018-12-28T22:25:57Z</time>
      </trkpt>
      <trkpt lat="37.490040" lon="-121.206690">
        <ele>65.565</ele>
        <time>2018-12-28T22:26:17Z</time>
      </trkpt>
      <trkpt lat="37.490240" lon="-121.206890">
        <ele>66.738</ele>
        <time>2018-12-28T22:26:37Z</time>
      </trkpt>
      <trkpt lat="37.491770" lon="-121.208370">
        <ele>78.452</ele>
        <time>2018-12-28T22:26:57Z</time>
      </trkpt>
      <trkpt lat="37.492180" lon="-121.208770">
        <ele>76.153</ele>
        <time>2018-12-28T22:27:17Z</time>
      </trkpt>
      <trkpt lat="37.492510" lon="-121.209120">
        <ele>80.108</ele>
        <time>2018-12-28T22:27:37Z</time>
      </trkpt>
      <trkpt lat="37.493600" lon="-121.210280">
        <ele>83.408</ele>
        <time>2018-12-28T22:27:57Z</time>
      </trkpt>
      <trkpt lat="37.494090" lon="-121.210830">
        <ele>82.628</ele>
        <time>2018-12-28T22:28:17Z</time>
      </trkpt>
      <trkpt lat="37.494470" lon="-121.211260">
        <ele>81.786</ele>
        <time>2018-12-28T22:28:37Z</time>
      </trkpt>
      <trkpt lat="37.494680" lon="-121.211500">
        <ele>80.681</ele>
        <time>2018-12-28T22:28:57Z</time>
      </trkpt>
      <trkpt lat="37.495140" lon="-121.212070">
        <ele>77.910</ele>
        <time>2018-12-28T22:29:17Z</time>
      </trkpt>
      <trkpt lat="37.495580" lon="-121.212650">
        <ele>77.364</ele>
        <time>2018-12-28T22:29:37Z</time>
      </trkpt>
      <trkpt lat="37.495850" lon="-121.213010">
        <ele>77.577</ele>
        <time>2018-12-28T22:29:57Z</time>
      </trkpt>
      <trkpt lat="37.496470" lon="-121.213860">
        <ele>77.641</ele>
        <time>2018-12-28T22:30:17Z</time>
      </trkpt>
      <trkpt lat="37.497010" lon="-121.214590">
        <ele>77.884</ele>
        <time>2018-12-28T22:30:37Z</time>
      </trkpt>
      <trkpt lat="37.497270" lon="-121.214960">
        <ele>77.588</ele>
        <time>2018-12-28T22:30:57Z</time>
      </trkpt>
      <trkpt lat="37.498160" lon="-121.216170">
        <ele>76.424</ele>
        <time>2018-12-28T22:31:17Z</time>
      </trkpt>
      <trkpt lat="37.498790" lon="-121.217010">
        <ele>74.926</ele>
        <time>2018-12-28T22:31:37Z</time>
      </trkpt>
      <trkpt lat="37.499320" lon="-121.217740">
        <ele>74.508</ele>
        <time>2018-12-28T22:31:57Z</time>
      </trkpt>
      <trkpt lat="37.499600" lon="-121.218130">
        <ele>75.031</ele>
        <time>2018-12-28T22:32:17Z</time>
      </trkpt>
      <trkpt lat="37.500080" lon="-121.218800">
        <ele>77.689</ele>
        <time>2018-12-28T22:32:37Z</time>
      </trkpt>
      <trkpt lat="37.501020" lon="-121.220070">
        <ele>76.114</ele>
        <time>2018-12-28T22:32:57Z</time>
      </trkpt>
      <trkpt lat="37.501360" lon="-121.220540">
        <ele>76.353</ele>
        <time>2018-12-28T22:33:17Z</time>
      </trkpt>
      <trkpt lat="37.501630" lon="-121.220920">
        <ele>76.847</ele>
        <time>2018-12-28T22:33:37Z</time>
      </trkpt>
      <trkpt lat="37.502270" lon="-121.221790">
        <ele>77.920</ele>
        <time>2018-12-28T22:33:57Z</time>
      </trkpt>
      <trkpt lat="37.503240" lon="-121.223110">
        <ele>78.084</ele>
        <time>2018-12-28T22:34:17Z</time>
      </trkpt>
      <trkpt lat="37.503510" lon="-121.223470">
        <ele>77.847</ele>
        <time>2018-12-28T22:34:37Z</time>
      </trkpt>
      <trkpt lat="37.503780" lon="-121.223820">
        <ele>77.747</ele>
        <time>2018-12-28T22:34:57Z</time>
      </trkpt>
      <trkpt lat="37.504070" lon="-121.224190">
        <ele>77.829</ele>
        <time>2018-12-28T22:35:17Z</time>
      </trkpt>
      <trkpt lat="37.505000" lon="-121.225350">
        <ele>79.621</ele>
        <time>2018-12-28T22:35:37Z</time>
      </trkpt>
      <trkpt lat="37.505850" lon="-121.226360">
        <ele>79.408</ele>
        <time>2018-12-28T22:35:57Z</time>
      </trkpt>
      <trkpt lat="37.506130" lon="-121.226700">
        <ele>80.157</ele>
        <time>2018-12-28T22:36:17Z</time>
      </trkpt>
      <trkpt lat="37.507090" lon="-121.227820">
        <ele>79.995</ele>
        <time>2018-12-28T22:36:37Z</time>
      </trkpt>
      <trkpt lat="37.508770" lon="-121.229800">
        <ele>81.270</ele>
        <time>2018-12-28T22:36:57Z</time>
      </trkpt>
      <trkpt lat="37.509490" lon="-121.230660">
        <ele>83.669</ele>
        <time>2018-12-28T22:37:17Z</time>
      </trkpt>
      <trkpt lat="37.510070" lon="-121.231330">
        <ele>85.313</ele>
        <time>2018-12-28T22:37:37Z</time>
      </trkpt>
      <trkpt lat="37.511280" lon="-121.232770">
        <ele>90.226</ele>
        <time>2018-12-28T22:37:57Z</time>
      </trkpt>
      <trkpt lat="37.511980" lon="-121.233590">
        <ele>92.560</ele>
        <time>2018-12-28T22:38:17Z</time>
      </trkpt>
      <trkpt lat="37.512740" lon="-121.234490">
        <ele>94.213</ele>
        <time>2018-12-28T22:38:37Z</time>
      </trkpt>
      <trkpt lat="37.512940" lon="-121.234720">
        <ele>94.294</ele>
        <time>2018-12-28T22:38:57Z</time>
      </trkpt>
      <trkpt lat="37.513220" lon="-121.235040">
        <ele>93.757</ele>
        <time>2018-12-28T22:39:17Z</time>
      </trkpt>
      <trkpt lat="37.513790" lon="-121.235700">
        <ele>93.522</ele>
        <time>2018-12-28T22:39:37Z</time>
      </trkpt>
      <trkpt lat="37.513870" lon="-121.235800">
        <ele>93.508</ele>
        <time>2018-12-28T22:39:57Z</time>
      </trkpt>
      <trkpt lat="37.514010" lon="-121.235960">
        <ele>93.342</ele>
        <time>2018-12-28T22:40:17Z</time>
      </trkpt>
      <trkpt lat="37.514490" lon="-121.236530">
        <ele>93.710</ele>
        <time>2018-12-28T22:40:37Z</time>
      </trkpt>
      <trkpt lat="37.514680" lon="-121.236760">
        <ele>93.965</ele>
        <time>2018-12-28T22:40:57Z</time>
      </trkpt>
      <trkpt lat="37.515040" lon="-121.237170">
        <ele>93.494</ele>
        <time>2018-12-28T22:41:17Z</time>
      </trkpt>
      <trkpt lat="37.515710" lon="-121.237960">
        <ele>92.558</ele>
        <time>2018-12-28T22:41:37Z</time>
      </trkpt>
      <trkpt lat="37.516410" lon="-121.238790">
        <ele>91.981</ele>
        <time>2018-12-28T22:41:57Z</time>
      </trkpt>
      <trkpt lat="37.516570" lon="-121.238980">
        <ele>92.095</ele>
        <time>2018-12-28T22:42:17Z</time>
      </trkpt>
      <trkpt lat="37.516690" lon="-121.239130">
        <ele>91.758</ele>
        <time>2018-12-28T22:42:37Z</time>
      </trkpt>
      <trkpt lat="37.516980" lon="-121.239460">
        <ele>90.826</ele>
        <time>2018-12-28T22:42:57Z</time>
      </trkpt>
      <trkpt lat="37.517270" lon="-121.239800">
        <ele>90.547</ele>
        <time>2018-12-28T22:43:17Z</time>
      </trkpt>
      <trkpt lat="37.517550" lon="-121.240140">
        <ele>90.011</ele>
        <time>2018-12-28T22:43:37Z</time>
      </trkpt>
      <trkpt lat="37.517820" lon="-121.240450">
        <ele>89.408</ele>
        <time>2018-12-28T22:43:57Z</time>
      </trkpt>
      <trkpt lat="37.517940" lon="-121.240600">
        <ele>89.175</ele>
        <time>2018-12-28T22:44:17Z</time>
      </trkpt>
      <trkpt lat="37.518130" lon="-121.240820">
        <ele>88.533</ele>
        <time>2018-12-28T22:44:37Z</time>
      </trkpt>
      <trkpt lat="37.518520" lon="-121.241270">
        <ele>86.878</ele>
        <time>2018-12-28T22:44:57Z</time>
      </trkpt>
      <trkpt lat="37.518710" lon="-121.241490">
        <ele>86.437</ele>
        <time>2018-12-28T22:45:17Z</time>
      </trkpt>
      <trkpt lat="37.518970" lon="-121.241800">
        <ele>86.331</ele>
        <time>2018-12-28T22:45:37Z</time>
      </trkpt>
      <trkpt lat="37.519260" lon="-121.242150">
        <ele>86.374</ele>
        <time>2018-12-28T22:45:57Z</time>
      </trkpt>
      <trkpt lat="37.519480" lon="-121.242410">
        <ele>86.288</ele>
        <time>2018-12-28T22:46:17Z</time>
      </trkpt>
      <trkpt lat="37.519760" lon="-121.242750">
        <ele>85.961</ele>
        <time>2018-12-28T22:46:37Z</time>
      </trkpt>
      <trkpt lat="37.520050" lon="-121.243080">
        <ele>85.136</ele>
        <time>2018-12-28T22:46:57Z</time>
      </trkpt>
      <trkpt lat="37.520240" lon="-121.243300">
        <ele>84.817</ele>
        <time>2018-12-28T22:47:17Z</time>
      </trkpt>
      <trkpt lat="37.520530" lon="-121.243640">
        <ele>84.618</ele>
        <time>2018-12-28T22:47:37Z</time>
      </trkpt>
      <trkpt lat="37.520720" lon="-121.243860">
        <ele>84.108</ele>
        <time>2018-12-28T22:47:57Z</time>
      </trkpt>
      <trkpt lat="37.520910" lon="-121.244090">
        <ele>84.296</ele>
        <time>2018-12-28T22:48:17Z</time>
      </trkpt>
      <trkpt lat="37.521300" lon="-121.244550">
        <ele>84.684</ele>
        <time>2018-12-28T22:48:37Z</time>
      </trkpt>
      <trkpt lat="37.522260" lon="-121.245690">
        <ele>84.829</ele>
        <time>2018-12-28T22:48:57Z</time>
      </trkpt>
      <trkpt lat="37.522900" lon="-121.246440">
        <ele>83.928</ele>
        <time>2018-12-28T22:49:17Z</time>
      </trkpt>
      <trkpt lat="37.523400" lon="-121.247040">
        <ele>82.752</ele>
        <time>2018-12-28T22:49:37Z</time>
      </trkpt>
      <trkpt lat="37.523600" lon="-121.247260">
        <ele>82.365</ele>
        <time>2018-12-28T22:49:57Z</time>
      </trkpt>
      <trkpt lat="37.523960" lon="-121.247680">
        <ele>81.269</ele>
        <time>2018-12-28T22:50:17Z</time>
      </trkpt>
      <trkpt lat="37.524180" lon="-121.247940">
        <ele>80.862</ele>
        <time>2018-12-28T22:50:37Z</time>
      </trkpt>
      <trkpt lat="37.524340" lon="-121.248130">
        <ele>80.718</ele>
        <time>2018-12-28T22:50:57Z</time>
      </trkpt>
      <trkpt lat="37.524820" lon="-121.248690">
        <ele>80.798</ele>
        <time>2018-12-28T22:51:17Z</time>
      </trkpt>
      <trkpt lat="37.525100" lon="-121.249030">
        <ele>80.717</ele>
        <time>2018-12-28T22:51:37Z</time>
      </trkpt>
      <trkpt lat="37.525130" lon="-121.249070">
        <ele>80.708</ele>
        <time>2018-12-28T22:51:57Z</time>
      </trkpt>
      <trkpt lat="37.526000" lon="-121.250070">
        <ele>78.654</ele>
        <time>2018-12-28T22:52:17Z</time>
      </trkpt>
      <trkpt lat="37.526540" lon="-121.250720">
        <ele>78.242</ele>
        <time>2018-12-28T22:52:37Z</time>
      </trkpt>
      <trkpt lat="37.526960" lon="-121.251210">
        <ele>78.837</ele>
        <time>2018-12-28T22:52:57Z</time>
      </trkpt>
      <trkpt lat="37.527810" lon="-121.252220">
        <ele>80.176</ele>
        <time>2018-12-28T22:53:17Z</time>
      </trkpt>
      <trkpt lat="37.528110" lon="-121.252560">
        <ele>81.030</ele>
        <time>2018-12-28T22:53:37Z</time>
      </trkpt>
      <trkpt lat="37.528680" lon="-121.253240">
        <ele>81.783</ele>
        <time>2018-12-28T22:53:57Z</time>
      </trkpt>
      <trkpt lat="37.529440" lon="-121.254140">
        <ele>83.587</ele>
        <time>2018-12-28T22:54:17Z</time>
      </trkpt>
      <trkpt lat="37.529830" lon="-121.254590">
        <ele>84.250</ele>
        <time>2018-12-28T22:54:37Z</time>
      </trkpt>
      <trkpt lat="37.530020" lon="-121.254810">
        <ele>84.283</ele>
        <time>2018-12-28T22:54:57Z</time>
      </trkpt>
      <trkpt lat="37.530090" lon="-121.254890">
        <ele>84.125</ele>
        <time>2018-12-28T22:55:17Z</time>
      </trkpt>
      <trkpt lat="37.530310" lon="-121.255150">
        <ele>85.317</ele>
        <time>2018-12-28T22:55:37Z</time>
      </trkpt>
      <trkpt lat="37.530760" lon="-121.255690">
        <ele>85.808</ele>
        <time>2018-12-28T22:55:57Z</time>
      </trkpt>
      <trkpt lat="37.530860" lon="-121.255800">
        <ele>85.711</ele>
        <time>2018-12-28T22:56:17Z</time>
      </trkpt>
      <trkpt lat="37.531070" lon="-121.256050">
        <ele>85.679</ele>
        <time>2018-12-28T22:56:37Z</time>
      </trkpt>
      <trkpt lat="37.531360" lon="-121.256390">
        <ele>85.214</ele>
        <time>2018-12-28T22:56:57Z</time>
      </trkpt>
      <trkpt lat="37.531650" lon="-121.256730">
        <ele>84.933</ele>
        <time>2018-12-28T22:57:17Z</time>
      </trkpt>
      <trkpt lat="37.531850" lon="-121.256960">
        <ele>84.857</ele>
        <time>2018-12-28T22:57:37Z</time>
      </trkpt>
      <trkpt lat="37.532130" lon="-121.257300">
        <ele>84.750</ele>
        <time>2018-12-28T22:57:57Z</time>
      </trkpt>
      <trkpt lat="37.532320" lon="-121.257520">
        <ele>84.624</ele>
        <time>2018-12-28T22:58:17Z</time>
      </trkpt>
      <trkpt lat="37.532420" lon="-121.257640">
        <ele>84.597</ele>
        <time>2018-12-28T22:58:37Z</time>
      </trkpt>
      <trkpt lat="37.532610" lon="-121.257860">
        <ele>84.356</ele>
        <time>2018-12-28T22:58:57Z</time>
      </trkpt>
      <trkpt lat="37.532900" lon="-121.258210">
        <ele>83.859</ele>
        <time>2018-12-28T22:59:17Z</time>
      </trkpt>
      <trkpt lat="37.533090" lon="-121.258440">
        <ele>83.414</ele>
        <time>2018-12-28T22:59:37Z</time>
      </trkpt>
      <trkpt lat="37.533470" lon="-121.258890">
        <ele>82.208</ele>
        <time>2018-12-28T22:59:57Z</time>
      </trkpt>
      <trkpt lat="37.533940" lon="-121.259460">
        <ele>80.088</ele>
        <time>2018-12-28T23:00:17Z</time>
      </trkpt>
      <trkpt lat="37.534310" lon="-121.259930">
        <ele>79.146</ele>
        <time>2018-12-28T23:00:37Z</time>
      </trkpt>
      <trkpt lat="37.534770" lon="-121.260520">
        <ele>79.421</ele>
        <time>2018-12-28T23:00:57Z</time>
      </trkpt>
      <trkpt lat="37.535040" lon="-121.260860">
        <ele>80.040</ele>
        <time>2018-12-28T23:01:17Z</time>
      </trkpt>
      <trkpt lat="37.535230" lon="-121.261100">
        <ele>81.214</ele>
        <time>2018-12-28T23:01:37Z</time>
      </trkpt>
      <trkpt lat="37.535570" lon="-121.261530">
        <ele>83.787</ele>
        <time>2018-12-28T23:01:57Z</time>
      </trkpt>
      <trkpt lat="37.535960" lon="-121.262040">
        <ele>83.321</ele>
        <time>2018-12-28T23:02:17Z</time>
      </trkpt>
      <trkpt lat="37.536130" lon="-121.262250">
        <ele>82.684</ele>
        <time>2018-12-28T23:02:37Z</time>
      </trkpt>
      <trkpt lat="37.536230" lon="-121.262400">
        <ele>82.138</ele>
        <time>2018-12-28T23:02:57Z</time>
      </trkpt>
      <trkpt lat="37.536450" lon="-121.262670">
        <ele>81.770</ele>
        <time>2018-12-28T23:03:17Z</time>
      </trkpt>
      <trkpt lat="37.536490" lon="-121.262730">
        <ele>81.517</ele>
        <time>2018-12-28T23:03:37Z</time>
      </trkpt>
      <trkpt lat="37.537010" lon="-121.263420">
        <ele>80.008</ele>
        <time>2018-12-28T23:03:57Z</time>
      </trkpt>
      <trkpt lat="37.538010" lon="-121.264720">
        <ele>83.866</ele>
        <time>2018-12-28T23:04:17Z</time>
      </trkpt>
      <trkpt lat="37.540060" lon="-121.267340">
        <ele>81.514</ele>
        <time>2018-12-28T23:04:37Z</time>
      </trkpt>
      <trkpt lat="37.540200" lon="-121.267520">
        <ele>80.749</ele>
        <time>2018-12-28T23:04:57Z</time>
      </trkpt>
      <trkpt lat="37.540320" lon="-121.267670">
        <ele>80.178</ele>
        <time>2018-12-28T23:05:17Z</time>
      </trkpt>
      <trkpt lat="37.541710" lon="-121.269510">
        <ele>83.112</ele>
        <time>2018-12-28T23:05:37Z</time>
      </trkpt>
      <trkpt lat="37.542070" lon="-121.269980">
        <ele>84.265</ele>
        <time>2018-12-28T23:05:57Z</time>
      </trkpt>
      <trkpt lat="37.542890" lon="-121.271030">
        <ele>84.779</ele>
        <time>2018-12-28T23:06:17Z</time>
      </trkpt>
      <trkpt lat="37.544080" lon="-121.272570">
        <ele>87.482</ele>
        <time>2018-12-28T23:06:37Z</time>
      </trkpt>
      <trkpt lat="37.545450" lon="-121.274370">
        <ele>95.337</ele>
        <time>2018-12-28T23:06:57Z</time>
      </trkpt>
      <trkpt lat="37.545970" lon="-121.275060">
        <ele>97.549</ele>
        <time>2018-12-28T23:07:17Z</time>
      </trkpt>
      <trkpt lat="37.546370" lon="-121.275570">
        <ele>100.413</ele>
        <time>2018-12-28T23:07:37Z</time>
      </trkpt>
      <trkpt lat="37.547480" lon="-121.276990">
        <ele>97.508</ele>
        <time>2018-12-28T23:07:57Z</time>
      </trkpt>
      <trkpt lat="37.547820" lon="-121.277420">
        <ele>97.316</ele>
        <time>2018-12-28T23:08:17Z</time>
      </trkpt>
      <trkpt lat="37.548650" lon="-121.278490">
        <ele>94.914</ele>
        <time>2018-12-28T23:08:37Z</time>
      </trkpt>
      <trkpt lat="37.551300" lon="-121.281940">
        <ele>100.259</ele>
        <time>2018-12-28T23:08:57Z</time>
      </trkpt>
      <trkpt lat="37.552500" lon="-121.283490">
        <ele>94.038</ele>
        <time>2018-12-28T23:09:17Z</time>
      </trkpt>
      <trkpt lat="37.553230" lon="-121.284440">
        <ele>93.582</ele>
        <time>2018-12-28T23:09:37Z</time>
      </trkpt>
      <trkpt lat="37.554680" lon="-121.286330">
        <ele>98.255</ele>
        <time>2018-12-28T23:09:57Z</time>
      </trkpt>
      <trkpt lat="37.557060" lon="-121.289400">
        <ele>101.569</ele>
        <time>2018-12-28T23:10:17Z</time>
      </trkpt>
      <trkpt lat="37.557450" lon="-121.289920">
        <ele>100.192</ele>
        <time>2018-12-28T23:10:37Z</time>
      </trkpt>
      <trkpt lat="37.557890" lon="-121.290480">
        <ele>100.192</ele>
        <time>2018-12-28T23:10:57Z</time>
      </trkpt>
      <trkpt lat="37.558610" lon="-121.291430">
        <ele>103.973</ele>
        <time>2018-12-28T23:11:17Z</time>
      </trkpt>
      <trkpt lat="37.559620" lon="-121.292740">
        <ele>106.520</ele>
        <time>2018-12-28T23:11:37Z</time>
      </trkpt>
      <trkpt lat="37.560080" lon="-121.293330">
        <ele>104.208</ele>
        <time>2018-12-28T23:11:57Z</time>
      </trkpt>
      <trkpt lat="37.560530" lon="-121.293910">
        <ele>105.512</ele>
        <time>2018-12-28T23:12:17Z</time>
      </trkpt>
      <trkpt lat="37.562070" lon="-121.295920">
        <ele>104.510</ele>
        <time>2018-12-28T23:12:37Z</time>
      </trkpt>
      <trkpt lat="37.565020" lon="-121.299720">
        <ele>98.655</ele>
        <time>2018-12-28T23:12:57Z</time>
      </trkpt>
      <trkpt lat="37.565390" lon="-121.300220">
        <ele>97.874</ele>
        <time>2018-12-28T23:13:17Z</time>
      </trkpt>
      <trkpt lat="37.565670" lon="-121.300580">
        <ele>97.878</ele>
        <time>2018-12-28T23:13:37Z</time>
      </trkpt>
      <trkpt lat="37.565840" lon="-121.300800">
        <ele>97.841</ele>
        <time>2018-12-28T23:13:57Z</time>
      </trkpt>
      <trkpt lat="37.569130" lon="-121.305070">
        <ele>103.665</ele>
        <time>2018-12-28T23:14:17Z</time>
      </trkpt>
      <trkpt lat="37.569770" lon="-121.305890">
        <ele>104.588</ele>
        <time>2018-12-28T23:14:37Z</time>
      </trkpt>
      <trkpt lat="37.575000" lon="-121.312680">
        <ele>81.984</ele>
        <time>2018-12-28T23:14:57Z</time>
      </trkpt>
      <trkpt lat="37.575270" lon="-121.313050">
        <ele>80.507</ele>
        <time>2018-12-28T23:15:17Z</time>
      </trkpt>
      <trkpt lat="37.576060" lon="-121.314060">
        <ele>79.217</ele>
        <time>2018-12-28T23:15:37Z</time>
      </trkpt>
      <trkpt lat="37.576810" lon="-121.315040">
        <ele>80.508</ele>
        <time>2018-12-28T23:15:57Z</time>
      </trkpt>
      <trkpt lat="37.579540" lon="-121.318570">
        <ele>87.591</ele>
        <time>2018-12-28T23:16:17Z</time>
      </trkpt>
      <trkpt lat="37.580190" lon="-121.319420">
        <ele>89.689</ele>
        <time>2018-12-28T23:16:37Z</time>
      </trkpt>
      <trkpt lat="37.580470" lon="-121.319780">
        <ele>90.694</ele>
        <time>2018-12-28T23:16:57Z</time>
      </trkpt>
      <trkpt lat="37.580690" lon="-121.320070">
        <ele>91.463</ele>
        <time>2018-12-28T23:17:17Z</time>
      </trkpt>
      <trkpt lat="37.580800" lon="-121.320210">
        <ele>91.717</ele>
        <time>2018-12-28T23:17:37Z</time>
      </trkpt>
      <trkpt lat="37.580990" lon="-121.320460">
        <ele>92.390</ele>
        <time>2018-12-28T23:17:57Z</time>
      </trkpt>
      <trkpt lat="37.582450" lon="-121.322340">
        <ele>94.734</ele>
        <time>2018-12-28T23:18:17Z</time>
      </trkpt>
      <trkpt lat="37.583150" lon="-121.323240">
        <ele>93.927</ele>
        <time>2018-12-28T23:18:37Z</time>
      </trkpt>
      <trkpt lat="37.585170" lon="-121.325880">
        <ele>93.131</ele>
        <time>2018-12-28T23:18:57Z</time>
      </trkpt>
      <trkpt lat="37.585690" lon="-121.326550">
        <ele>91.361</ele>
        <time>2018-12-28T23:19:17Z</time>
      </trkpt>
      <trkpt lat="37.588890" lon="-121.330700">
        <ele>81.607</ele>
        <time>2018-12-28T23:19:37Z</time>
      </trkpt>
      <trkpt lat="37.591000" lon="-121.333440">
        <ele>78.108</ele>
        <time>2018-12-28T23:19:57Z</time>
      </trkpt>
      <trkpt lat="37.593440" lon="-121.336590">
        <ele>78.586</ele>
        <time>2018-12-28T23:20:17Z</time>
      </trkpt>
      <trkpt lat="37.593437" lon="-121.336586">
        <ele>78.564</ele>
        <time>2018-12-28T23:20:37Z</time>
      </trkpt>
      <trkpt lat="37.593610" lon="-121.336830">
        <ele>78.639</ele>
        <time>2018-12-28T23:20:57Z</time>
      </trkpt>
      <trkpt lat="37.593930" lon="-121.337260">
        <ele>78.728</ele>
        <time>2018-12-28T23:21:17Z</time>
      </trkpt>
      <trkpt lat="37.594060" lon="-121.337430">
        <ele>78.892</ele>
        <time>2018-12-28T23:21:37Z</time>
      </trkpt>
      <trkpt lat="37.594190" lon="-121.337600">
        <ele>78.875</ele>
        <time>2018-12-28T23:21:57Z</time>
      </trkpt>
      <trkpt lat="37.598040" lon="-121.342610">
        <ele>85.419</ele>
        <time>2018-12-28T23:22:17Z</time>
      </trkpt>
      <trkpt lat="37.598240" lon="-121.342870">
        <ele>85.942</ele>
        <time>2018-12-28T23:22:37Z</time>
      </trkpt>
      <trkpt lat="37.602000" lon="-121.347750">
        <ele>88.613</ele>
        <time>2018-12-28T23:22:57Z</time>
      </trkpt>
      <trkpt lat="37.602810" lon="-121.348800">
        <ele>89.143</ele>
        <time>2018-12-28T23:23:17Z</time>
      </trkpt>
      <trkpt lat="37.606190" lon="-121.353200">
        <ele>94.707</ele>
        <time>2018-12-28T23:23:37Z</time>
      </trkpt>
      <trkpt lat="37.606810" lon="-121.354000">
        <ele>94.908</ele>
        <time>2018-12-28T23:23:57Z</time>
      </trkpt>
      <trkpt lat="37.607070" lon="-121.354340">
        <ele>94.984</ele>
        <time>2018-12-28T23:24:17Z</time>
      </trkpt>
      <trkpt lat="37.607490" lon="-121.354890">
        <ele>94.992</ele>
        <time>2018-12-28T23:24:37Z</time>
      </trkpt>
      <trkpt lat="37.608180" lon="-121.355780">
        <ele>94.877</ele>
        <time>2018-12-28T23:24:57Z</time>
      </trkpt>
      <trkpt lat="37.609000" lon="-121.356840">
        <ele>94.426</ele>
        <time>2018-12-28T23:25:17Z</time>
      </trkpt>
      <trkpt lat="37.609560" lon="-121.357570">
        <ele>93.480</ele>
        <time>2018-12-28T23:25:37Z</time>
      </trkpt>
      <trkpt lat="37.609990" lon="-121.358130">
        <ele>92.513</ele>
        <time>2018-12-28T23:25:57Z</time>
      </trkpt>
      <trkpt lat="37.610230" lon="-121.358460">
        <ele>92.097</ele>
        <time>2018-12-28T23:26:17Z</time>
      </trkpt>
      <trkpt lat="37.610470" lon="-121.358760">
        <ele>92.030</ele>
        <time>2018-12-28T23:26:37Z</time>
      </trkpt>
      <trkpt lat="37.610990" lon="-121.359440">
        <ele>92.828</ele>
        <time>2018-12-28T23:26:57Z</time>
      </trkpt>
      <trkpt lat="37.611270" lon="-121.359800">
        <ele>94.289</ele>
        <time>2018-12-28T23:27:17Z</time>
      </trkpt>
      <trkpt lat="37.611490" lon="-121.360080">
        <ele>94.917</ele>
        <time>2018-12-28T23:27:37Z</time>
      </trkpt>
      <trkpt lat="37.611990" lon="-121.360730">
        <ele>96.108</ele>
        <time>2018-12-28T23:27:57Z</time>
      </trkpt>
      <trkpt lat="37.612250" lon="-121.361070">
        <ele>97.265</ele>
        <time>2018-12-28T23:28:17Z</time>
      </trkpt>
      <trkpt lat="37.612490" lon="-121.361380">
        <ele>98.173</ele>
        <time>2018-12-28T23:28:37Z</time>
      </trkpt>
      <trkpt lat="37.612790" lon="-121.361760">
        <ele>99.518</ele>
        <time>2018-12-28T23:28:57Z</time>
      </trkpt>
      <trkpt lat="37.612980" lon="-121.362010">
        <ele>100.267</ele>
        <time>2018-12-28T23:29:17Z</time>
      </trkpt>
      <trkpt lat="37.613240" lon="-121.362350">
        <ele>100.961</ele>
        <time>2018-12-28T23:29:37Z</time>
      </trkpt>
      <trkpt lat="37.613500" lon="-121.362680">
        <ele>101.944</ele>
        <time>2018-12-28T23:29:57Z</time>
      </trkpt>
      <trkpt lat="37.613780" lon="-121.363040">
        <ele>102.338</ele>
        <time>2018-12-28T23:30:17Z</time>
      </trkpt>
      <trkpt lat="37.614130" lon="-121.363530">
        <ele>98.011</ele>
        <time>2018-12-28T23:30:37Z</time>
      </trkpt>
      <trkpt lat="37.614510" lon="-121.364030">
        <ele>98.157</ele>
        <time>2018-12-28T23:30:57Z</time>
      </trkpt>
      <trkpt lat="37.614820" lon="-121.364430">
        <ele>98.300</ele>
        <time>2018-12-28T23:31:17Z</time>
      </trkpt>
      <trkpt lat="37.615010" lon="-121.364670">
        <ele>98.220</ele>
        <time>2018-12-28T23:31:37Z</time>
      </trkpt>
      <trkpt lat="37.616920" lon="-121.367140">
        <ele>103.708</ele>
        <time>2018-12-28T23:31:57Z</time>
      </trkpt>
      <trkpt lat="37.617340" lon="-121.367700">
        <ele>102.318</ele>
        <time>2018-12-28T23:32:17Z</time>
      </trkpt>
      <trkpt lat="37.617760" lon="-121.368240">
        <ele>102.876</ele>
        <time>2018-12-28T23:32:37Z</time>
      </trkpt>
      <trkpt lat="37.618150" lon="-121.368740">
        <ele>103.071</ele>
        <time>2018-12-28T23:32:57Z</time>
      </trkpt>
      <trkpt lat="37.618690" lon="-121.369450">
        <ele>103.370</ele>
        <time>2018-12-28T23:33:17Z</time>
      </trkpt>
      <trkpt lat="37.619190" lon="-121.370100">
        <ele>103.234</ele>
        <time>2018-12-28T23:33:37Z</time>
      </trkpt>
      <trkpt lat="37.619570" lon="-121.370600">
        <ele>103.827</ele>
        <time>2018-12-28T23:33:57Z</time>
      </trkpt>
      <trkpt lat="37.619710" lon="-121.370790">
        <ele>104.121</ele>
        <time>2018-12-28T23:34:17Z</time>
      </trkpt>
      <trkpt lat="37.619960" lon="-121.371130">
        <ele>104.874</ele>
        <time>2018-12-28T23:34:37Z</time>
      </trkpt>
      <trkpt lat="37.620140" lon="-121.371370">
        <ele>105.686</ele>
        <time>2018-12-28T23:34:57Z</time>
      </trkpt>
      <trkpt lat="37.620240" lon="-121.371500">
        <ele>105.960</ele>
        <time>2018-12-28T23:35:17Z</time>
      </trkpt>
      <trkpt lat="37.620410" lon="-121.371750">
        <ele>106.226</ele>
        <time>2018-12-28T23:35:37Z</time>
      </trkpt>
      <trkpt lat="37.620570" lon="-121.371980">
        <ele>106.308</ele>
        <time>2018-12-28T23:35:57Z</time>
      </trkpt>
      <trkpt lat="37.620760" lon="-121.372240">
        <ele>106.341</ele>
        <time>2018-12-28T23:36:17Z</time>
      </trkpt>
      <trkpt lat="37.620850" lon="-121.372380">
        <ele>106.499</ele>
        <time>2018-12-28T23:36:37Z</time>
      </trkpt>
      <trkpt lat="37.621030" lon="-121.372630">
        <ele>106.454</ele>
        <time>2018-12-28T23:36:57Z</time>
      </trkpt>
      <trkpt lat="37.621110" lon="-121.372760">
        <ele>106.473</ele>
        <time>2018-12-28T23:37:17Z</time>
      </trkpt>
      <trkpt lat="37.621270" lon="-121.373000">
        <ele>106.317</ele>
        <time>2018-12-28T23:37:37Z</time>
      </trkpt>
      <trkpt lat="37.621520" lon="-121.373390">
        <ele>105.980</ele>
        <time>2018-12-28T23:37:57Z</time>
      </trkpt>
      <trkpt lat="37.621780" lon="-121.373780">
        <ele>105.324</ele>
        <time>2018-12-28T23:38:17Z</time>
      </trkpt>
      <trkpt lat="37.622010" lon="-121.374150">
        <ele>104.627</ele>
        <time>2018-12-28T23:38:37Z</time>
      </trkpt>
      <trkpt lat="37.622160" lon="-121.374390">
        <ele>104.223</ele>
        <time>2018-12-28T23:38:57Z</time>
      </trkpt>
      <trkpt lat="37.622350" lon="-121.374680">
        <ele>103.983</ele>
        <time>2018-12-28T23:39:17Z</time>
      </trkpt>
      <trkpt lat="37.622600" lon="-121.375100">
        <ele>103.211</ele>
        <time>2018-12-28T23:39:37Z</time>
      </trkpt>
      <trkpt lat="37.622920" lon="-121.375620">
        <ele>102.408</ele>
        <time>2018-12-28T23:39:57Z</time>
      </trkpt>
      <trkpt lat="37.623210" lon="-121.376110">
        <ele>102.035</ele>
        <time>2018-12-28T23:40:17Z</time>
      </trkpt>
      <trkpt lat="37.623480" lon="-121.376580">
        <ele>99.813</ele>
        <time>2018-12-28T23:40:37Z</time>
      </trkpt>
      <trkpt lat="37.623940" lon="-121.377300">
        <ele>101.688</ele>
        <time>2018-12-28T23:40:57Z</time>
      </trkpt>
      <trkpt lat="37.624290" lon="-121.377880">
        <ele>103.047</ele>
        <time>2018-12-28T23:41:17Z</time>
      </trkpt>
      <trkpt lat="37.624530" lon="-121.378280">
        <ele>101.861</ele>
        <time>2018-12-28T23:41:37Z</time>
      </trkpt>
      <trkpt lat="37.625070" lon="-121.379170">
        <ele>99.994</ele>
        <time>2018-12-28T23:41:57Z</time>
      </trkpt>
      <trkpt lat="37.625260" lon="-121.379480">
        <ele>98.798</ele>
        <time>2018-12-28T23:42:17Z</time>
      </trkpt>
      <trkpt lat="37.625580" lon="-121.380000">
        <ele>97.581</ele>
        <time>2018-12-28T23:42:37Z</time>
      </trkpt>
      <trkpt lat="37.625590" lon="-121.380010">
        <ele>97.572</ele>
        <time>2018-12-28T23:42:57Z</time>
      </trkpt>
      <trkpt lat="37.625870" lon="-121.380470">
        <ele>96.313</ele>
        <time>2018-12-28T23:43:17Z</time>
      </trkpt>
      <trkpt lat="37.626410" lon="-121.381370">
        <ele>97.514</ele>
        <time>2018-12-28T23:43:37Z</time>
      </trkpt>
      <trkpt lat="37.626820" lon="-121.382040">
        <ele>96.508</ele>
        <time>2018-12-28T23:43:57Z</time>
      </trkpt>
      <trkpt lat="37.627370" lon="-121.382960">
        <ele>93.070</ele>
        <time>2018-12-28T23:44:17Z</time>
      </trkpt>
      <trkpt lat="37.627880" lon="-121.383790">
        <ele>91.728</ele>
        <time>2018-12-28T23:44:37Z</time>
      </trkpt>
      <trkpt lat="37.628310" lon="-121.384490">
        <ele>90.943</ele>
        <time>2018-12-28T23:44:57Z</time>
      </trkpt>
      <trkpt lat="37.629030" lon="-121.385680">
        <ele>90.752</ele>
        <time>2018-12-28T23:45:17Z</time>
      </trkpt>
      <trkpt lat="37.629480" lon="-121.386420">
        <ele>89.146</ele>
        <time>2018-12-28T23:45:37Z</time>
      </trkpt>
      <trkpt lat="37.630140" lon="-121.387520">
        <ele>85.659</ele>
        <time>2018-12-28T23:45:57Z</time>
      </trkpt>
      <trkpt lat="37.630700" lon="-121.388430">
        <ele>85.593</ele>
        <time>2018-12-28T23:46:17Z</time>
      </trkpt>
      <trkpt lat="37.630750" lon="-121.388530">
        <ele>85.566</ele>
        <time>2018-12-28T23:46:37Z</time>
      </trkpt>
      <trkpt lat="37.631380" lon="-121.389580">
        <ele>84.923</ele>
        <time>2018-12-28T23:46:57Z</time>
      </trkpt>
      <trkpt lat="37.631510" lon="-121.389790">
        <ele>85.183</ele>
        <time>2018-12-28T23:47:17Z</time>
      </trkpt>
      <trkpt lat="37.631650" lon="-121.390010">
        <ele>85.611</ele>
        <time>2018-12-28T23:47:37Z</time>
      </trkpt>
      <trkpt lat="37.632440" lon="-121.391290">
        <ele>89.008</ele>
        <time>2018-12-28T23:47:57Z</time>
      </trkpt>
      <trkpt lat="37.633790" lon="-121.393530">
        <ele>90.625</ele>
        <time>2018-12-28T23:48:17Z</time>
      </trkpt>
      <trkpt lat="37.634160" lon="-121.394120">
        <ele>90.263</ele>
        <time>2018-12-28T23:48:37Z</time>
      </trkpt>
      <trkpt lat="37.634440" lon="-121.394590">
        <ele>90.218</ele>
        <time>2018-12-28T23:48:57Z</time>
      </trkpt>
      <trkpt lat="37.634650" lon="-121.394930">
        <ele>90.317</ele>
        <time>2018-12-28T23:49:17Z</time>
      </trkpt>
      <trkpt lat="37.636210" lon="-121.397500">
        <ele>91.191</ele>
        <time>2018-12-28T23:49:37Z</time>
      </trkpt>
      <trkpt lat="37.636330" lon="-121.397700">
        <ele>90.834</ele>
        <time>2018-12-28T23:49:57Z</time>
      </trkpt>
      <trkpt lat="37.636490" lon="-121.397970">
        <ele>90.598</ele>
        <time>2018-12-28T23:50:17Z</time>
      </trkpt>
      <trkpt lat="37.638520" lon="-121.401310">
        <ele>87.421</ele>
        <time>2018-12-28T23:50:37Z</time>
      </trkpt>
      <trkpt lat="37.638570" lon="-121.401400">
        <ele>87.392</ele>
        <time>2018-12-28T23:50:57Z</time>
      </trkpt>
      <trkpt lat="37.638680" lon="-121.401560">
        <ele>87.073</ele>
        <time>2018-12-28T23:51:17Z</time>
      </trkpt>
      <trkpt lat="37.638810" lon="-121.401790">
        <ele>86.720</ele>
        <time>2018-12-28T23:51:37Z</time>
      </trkpt>
      <trkpt lat="37.639020" lon="-121.402140">
        <ele>86.208</ele>
        <time>2018-12-28T23:51:57Z</time>
      </trkpt>
      <trkpt lat="37.640790" lon="-121.405050">
        <ele>81.962</ele>
        <time>2018-12-28T23:52:17Z</time>
      </trkpt>
      <trkpt lat="37.641760" lon="-121.406640">
        <ele>80.230</ele>
        <time>2018-12-28T23:52:37Z</time>
      </trkpt>
      <trkpt lat="37.641990" lon="-121.407040">
        <ele>79.695</ele>
        <time>2018-12-28T23:52:57Z</time>
      </trkpt>
      <trkpt lat="37.642460" lon="-121.407800">
        <ele>79.084</ele>
        <time>2018-12-28T23:53:17Z</time>
      </trkpt>
      <trkpt lat="37.642930" lon="-121.408580">
        <ele>78.658</ele>
        <time>2018-12-28T23:53:37Z</time>
      </trkpt>
      <trkpt lat="37.643480" lon="-121.409490">
        <ele>78.031</ele>
        <time>2018-12-28T23:53:57Z</time>
      </trkpt>
      <trkpt lat="37.643560" lon="-121.409620">
        <ele>77.935</ele>
        <time>2018-12-28T23:54:17Z</time>
      </trkpt>
      <trkpt lat="37.644040" lon="-121.410420">
        <ele>77.918</ele>
        <time>2018-12-28T23:54:37Z</time>
      </trkpt>
      <trkpt lat="37.644310" lon="-121.410860">
        <ele>78.034</ele>
        <time>2018-12-28T23:54:57Z</time>
      </trkpt>
      <trkpt lat="37.644580" lon="-121.411310">
        <ele>78.255</ele>
        <time>2018-12-28T23:55:17Z</time>
      </trkpt>
      <trkpt lat="37.644950" lon="-121.411920">
        <ele>78.610</ele>
        <time>2018-12-28T23:55:37Z</time>
      </trkpt>
      <trkpt lat="37.645040" lon="-121.412070">
        <ele>78.708</ele>
        <time>2018-12-28T23:55:57Z</time>
      </trkpt>
      <trkpt lat="37.645720" lon="-121.413180">
        <ele>79.366</ele>
        <time>2018-12-28T23:56:17Z</time>
      </trkpt>
      <trkpt lat="37.646270" lon="-121.414090">
        <ele>79.554</ele>
        <time>2018-12-28T23:56:37Z</time>
      </trkpt>
      <trkpt lat="37.646740" lon="-121.414870">
        <ele>79.079</ele>
        <time>2018-12-28T23:56:57Z</time>
      </trkpt>
      <trkpt lat="37.647140" lon="-121.415520">
        <ele>77.568</ele>
        <time>2018-12-28T23:57:17Z</time>
      </trkpt>
      <trkpt lat="37.647720" lon="-121.416440">
        <ele>77.772</ele>
        <time>2018-12-28T23:57:37Z</time>
      </trkpt>
      <trkpt lat="37.648270" lon="-121.417360">
        <ele>79.415</ele>
        <time>2018-12-28T23:57:57Z</time>
      </trkpt>
      <trkpt lat="37.648770" lon="-121.418200">
        <ele>80.319</ele>
        <time>2018-12-28T23:58:17Z</time>
      </trkpt>
      <trkpt lat="37.649110" lon="-121.418750">
        <ele>80.332</ele>
        <time>2018-12-28T23:58:37Z</time>
      </trkpt>
      <trkpt lat="37.649200" lon="-121.418910">
        <ele>80.348</ele>
        <time>2018-12-28T23:58:57Z</time>
      </trkpt>
      <trkpt lat="37.649610" lon="-121.419570">
        <ele>80.761</ele>
        <time>2018-12-28T23:59:17Z</time>
      </trkpt>
      <trkpt lat="37.649770" lon="-121.419840">
        <ele>81.017</ele>
        <time>2018-12-28T23:59:37Z</time>
      </trkpt>
      <trkpt lat="37.649900" lon="-121.420070">
        <ele>81.308</ele>
        <time>2018-12-28T23:59:57Z</time>
      </trkpt>
      <trkpt lat="37.650240" lon="-121.420620">
        <ele>81.547</ele>
        <time>2018-12-29T00:00:17Z</time>
      </trkpt>
      <trkpt lat="37.650790" lon="-121.421530">
        <ele>81.785</ele>
        <time>2018-12-29T00:00:37Z</time>
      </trkpt>
      <trkpt lat="37.651200" lon="-121.422220">
        <ele>81.780</ele>
        <time>2018-12-29T00:00:57Z</time>
      </trkpt>
      <trkpt lat="37.651430" lon="-121.422600">
        <ele>81.589</ele>
        <time>2018-12-29T00:01:17Z</time>
      </trkpt>
      <trkpt lat="37.653720" lon="-121.426350">
        <ele>77.743</ele>
        <time>2018-12-29T00:01:37Z</time>
      </trkpt>
      <trkpt lat="37.653870" lon="-121.426620">
        <ele>77.546</ele>
        <time>2018-12-29T00:01:57Z</time>
      </trkpt>
      <trkpt lat="37.654000" lon="-121.426820">
        <ele>77.390</ele>
        <time>2018-12-29T00:02:17Z</time>
      </trkpt>
      <trkpt lat="37.654210" lon="-121.427170">
        <ele>76.953</ele>
        <time>2018-12-29T00:02:37Z</time>
      </trkpt>
      <trkpt lat="37.654670" lon="-121.427920">
        <ele>75.749</ele>
        <time>2018-12-29T00:02:57Z</time>
      </trkpt>
      <trkpt lat="37.654910" lon="-121.428320">
        <ele>75.502</ele>
        <time>2018-12-29T00:03:17Z</time>
      </trkpt>
      <trkpt lat="37.655550" lon="-121.429370">
        <ele>73.722</ele>
        <time>2018-12-29T00:03:37Z</time>
      </trkpt>
      <trkpt lat="37.655700" lon="-121.429630">
        <ele>73.408</ele>
        <time>2018-12-29T00:03:57Z</time>
      </trkpt>
      <trkpt lat="37.656260" lon="-121.430550">
        <ele>74.977</ele>
        <time>2018-12-29T00:04:17Z</time>
      </trkpt>
      <trkpt lat="37.656490" lon="-121.430940">
        <ele>76.045</ele>
        <time>2018-12-29T00:04:37Z</time>
      </trkpt>
      <trkpt lat="37.657380" lon="-121.432410">
        <ele>78.790</ele>
        <time>2018-12-29T00:04:57Z</time>
      </trkpt>
      <trkpt lat="37.658280" lon="-121.433890">
        <ele>78.729</ele>
        <time>2018-12-29T00:05:17Z</time>
      </trkpt>
      <trkpt lat="37.658560" lon="-121.434330">
        <ele>78.873</ele>
        <time>2018-12-29T00:05:37Z</time>
      </trkpt>
      <trkpt lat="37.658690" lon="-121.434570">
        <ele>79.046</ele>
        <time>2018-12-29T00:05:57Z</time>
      </trkpt>
      <trkpt lat="37.659330" lon="-121.435620">
        <ele>80.770</ele>
        <time>2018-12-29T00:06:17Z</time>
      </trkpt>
      <trkpt lat="37.660010" lon="-121.436740">
        <ele>81.233</ele>
        <time>2018-12-29T00:06:37Z</time>
      </trkpt>
      <trkpt lat="37.660300" lon="-121.437220">
        <ele>81.315</ele>
        <time>2018-12-29T00:06:57Z</time>
      </trkpt>
      <trkpt lat="37.660990" lon="-121.438350">
        <ele>80.765</ele>
        <time>2018-12-29T00:07:17Z</time>
      </trkpt>
      <trkpt lat="37.661190" lon="-121.438690">
        <ele>80.511</ele>
        <time>2018-12-29T00:07:37Z</time>
      </trkpt>
      <trkpt lat="37.661830" lon="-121.439740">
        <ele>79.908</ele>
        <time>2018-12-29T00:07:57Z</time>
      </trkpt>
      <trkpt lat="37.662150" lon="-121.440280">
        <ele>80.114</ele>
        <time>2018-12-29T00:08:17Z</time>
      </trkpt>
      <trkpt lat="37.662950" lon="-121.441580">
        <ele>82.642</ele>
        <time>2018-12-29T00:08:37Z</time>
      </trkpt>
      <trkpt lat="37.663010" lon="-121.441690">
        <ele>82.977</ele>
        <time>2018-12-29T00:08:57Z</time>
      </trkpt>
      <trkpt lat="37.664000" lon="-121.443320">
        <ele>84.726</ele>
        <time>2018-12-29T00:09:17Z</time>
      </trkpt>
      <trkpt lat="37.664790" lon="-121.444640">
        <ele>85.990</ele>
        <time>2018-12-29T00:09:37Z</time>
      </trkpt>
      <trkpt lat="37.665230" lon="-121.445370">
        <ele>87.753</ele>
        <time>2018-12-29T00:09:57Z</time>
      </trkpt>
      <trkpt lat="37.665400" lon="-121.445630">
        <ele>88.387</ele>
        <time>2018-12-29T00:10:17Z</time>
      </trkpt>
      <trkpt lat="37.665420" lon="-121.445670">
        <ele>88.440</ele>
        <time>2018-12-29T00:10:37Z</time>
      </trkpt>
      <trkpt lat="37.670540" lon="-121.454120">
        <ele>76.555</ele>
        <time>2018-12-29T00:10:57Z</time>
      </trkpt>
      <trkpt lat="37.671610" lon="-121.455880">
        <ele>79.507</ele>
        <time>2018-12-29T00:11:17Z</time>
      </trkpt>
      <trkpt lat="37.673670" lon="-121.459270">
        <ele>90.417</ele>
        <time>2018-12-29T00:11:37Z</time>
      </trkpt>
      <trkpt lat="37.673890" lon="-121.459640">
        <ele>90.508</ele>
        <time>2018-12-29T00:11:57Z</time>
      </trkpt>
      <trkpt lat="37.673960" lon="-121.459750">
        <ele>90.528</ele>
        <time>2018-12-29T00:12:17Z</time>
      </trkpt>
      <trkpt lat="37.675390" lon="-121.462110">
        <ele>91.476</ele>
        <time>2018-12-29T00:12:37Z</time>
      </trkpt>
      <trkpt lat="37.676660" lon="-121.464210">
        <ele>96.651</ele>
        <time>2018-12-29T00:12:57Z</time>
      </trkpt>
      <trkpt lat="37.677920" lon="-121.466300">
        <ele>97.410</ele>
        <time>2018-12-29T00:13:17Z</time>
      </trkpt>
      <trkpt lat="37.679750" lon="-121.469320">
        <ele>96.154</ele>
        <time>2018-12-29T00:13:37Z</time>
      </trkpt>
      <trkpt lat="37.680950" lon="-121.471310">
        <ele>93.217</ele>
        <time>2018-12-29T00:13:57Z</time>
      </trkpt>
      <trkpt lat="37.682070" lon="-121.473160">
        <ele>93.411</ele>
        <time>2018-12-29T00:14:17Z</time>
      </trkpt>
      <trkpt lat="37.683840" lon="-121.476080">
        <ele>92.754</ele>
        <time>2018-12-29T00:14:37Z</time>
      </trkpt>
      <trkpt lat="37.685700" lon="-121.479130">
        <ele>93.824</ele>
        <time>2018-12-29T00:14:57Z</time>
      </trkpt>
      <trkpt lat="37.686090" lon="-121.479800">
        <ele>92.004</ele>
        <time>2018-12-29T00:15:17Z</time>
      </trkpt>
      <trkpt lat="37.688910" lon="-121.484440">
        <ele>99.814</ele>
        <time>2018-12-29T00:15:37Z</time>
      </trkpt>
      <trkpt lat="37.690580" lon="-121.487210">
        <ele>102.508</ele>
        <time>2018-12-29T00:15:57Z</time>
      </trkpt>
      <trkpt lat="37.693510" lon="-121.492040">
        <ele>103.575</ele>
        <time>2018-12-29T00:16:17Z</time>
      </trkpt>
      <trkpt lat="37.701820" lon="-121.505760">
        <ele>85.443</ele>
        <time>2018-12-29T00:16:37Z</time>
      </trkpt>
      <trkpt lat="37.701990" lon="-121.506050">
        <ele>89.228</ele>
        <time>2018-12-29T00:16:57Z</time>
      </trkpt>
      <trkpt lat="37.702160" lon="-121.506330">
        <ele>81.057</ele>
        <time>2018-12-29T00:17:17Z</time>
      </trkpt>
      <trkpt lat="37.703280" lon="-121.508190">
        <ele>92.221</ele>
        <time>2018-12-29T00:17:37Z</time>
      </trkpt>
      <trkpt lat="37.707360" lon="-121.514950">
        <ele>84.864</ele>
        <time>2018-12-29T00:17:57Z</time>
      </trkpt>
      <trkpt lat="37.708660" lon="-121.517090">
        <ele>81.118</ele>
        <time>2018-12-29T00:18:17Z</time>
      </trkpt>
      <trkpt lat="37.709150" lon="-121.517900">
        <ele>79.131</ele>
        <time>2018-12-29T00:18:37Z</time>
      </trkpt>
      <trkpt lat="37.711240" lon="-121.521360">
        <ele>74.234</ele>
        <time>2018-12-29T00:18:57Z</time>
      </trkpt>
      <trkpt lat="37.712810" lon="-121.523970">
        <ele>80.955</ele>
        <time>2018-12-29T00:19:17Z</time>
      </trkpt>
      <trkpt lat="37.712880" lon="-121.524070">
        <ele>80.910</ele>
        <time>2018-12-29T00:19:37Z</time>
      </trkpt>
      <trkpt lat="37.712940" lon="-121.524170">
        <ele>80.808</ele>
        <time>2018-12-29T00:19:57Z</time>
      </trkpt>
      <trkpt lat="37.713320" lon="-121.524790">
        <ele>80.616</ele>
        <time>2018-12-29T00:20:17Z</time>
      </trkpt>
      <trkpt lat="37.717860" lon="-121.532310">
        <ele>73.874</ele>
        <time>2018-12-29T00:20:37Z</time>
      </trkpt>
      <trkpt lat="37.718120" lon="-121.532740">
        <ele>74.689</ele>
        <time>2018-12-29T00:20:57Z</time>
      </trkpt>
      <trkpt lat="37.718540" lon="-121.533400">
        <ele>75.928</ele>
        <time>2018-12-29T00:21:17Z</time>
      </trkpt>
      <trkpt lat="37.718960" lon="-121.534030">
        <ele>77.322</ele>
        <time>2018-12-29T00:21:37Z</time>
      </trkpt>
      <trkpt lat="37.719260" lon="-121.534460">
        <ele>78.655</ele>
        <time>2018-12-29T00:21:57Z</time>
      </trkpt>
      <trkpt lat="37.719490" lon="-121.534780">
        <ele>79.849</ele>
        <time>2018-12-29T00:22:17Z</time>
      </trkpt>
      <trkpt lat="37.719770" lon="-121.535160">
        <ele>85.082</ele>
        <time>2018-12-29T00:22:37Z</time>
      </trkpt>
      <trkpt lat="37.720140" lon="-121.535650">
        <ele>87.953</ele>
        <time>2018-12-29T00:22:57Z</time>
      </trkpt>
      <trkpt lat="37.720500" lon="-121.536110">
        <ele>83.704</ele>
        <time>2018-12-29T00:23:17Z</time>
      </trkpt>
      <trkpt lat="37.720790" lon="-121.536470">
        <ele>80.014</ele>
        <time>2018-12-29T00:23:37Z</time>
      </trkpt>
      <trkpt lat="37.721380" lon="-121.537150">
        <ele>79.508</ele>
        <time>2018-12-29T00:23:57Z</time>
      </trkpt>
      <trkpt lat="37.721570" lon="-121.537360">
        <ele>79.648</ele>
        <time>2018-12-29T00:24:17Z</time>
      </trkpt>
      <trkpt lat="37.722010" lon="-121.537840">
        <ele>79.896</ele>
        <time>2018-12-29T00:24:37Z</time>
      </trkpt>
      <trkpt lat="37.729210" lon="-121.545840">
        <ele>79.691</ele>
        <time>2018-12-29T00:24:57Z</time>
      </trkpt>
      <trkpt lat="37.730050" lon="-121.546770">
        <ele>87.250</ele>
        <time>2018-12-29T00:25:17Z</time>
      </trkpt>
      <trkpt lat="37.733010" lon="-121.550050">
        <ele>81.974</ele>
        <time>2018-12-29T00:25:37Z</time>
      </trkpt>
      <trkpt lat="37.734400" lon="-121.551610">
        <ele>77.437</ele>
        <time>2018-12-29T00:25:57Z</time>
      </trkpt>
      <trkpt lat="37.735090" lon="-121.552380">
        <ele>80.631</ele>
        <time>2018-12-29T00:26:17Z</time>
      </trkpt>
      <trkpt lat="37.735580" lon="-121.552950">
        <ele>80.914</ele>
        <time>2018-12-29T00:26:37Z</time>
      </trkpt>
      <trkpt lat="37.735970" lon="-121.553410">
        <ele>83.273</ele>
        <time>2018-12-29T00:26:57Z</time>
      </trkpt>
      <trkpt lat="37.736350" lon="-121.553860">
        <ele>84.685</ele>
        <time>2018-12-29T00:27:17Z</time>
      </trkpt>
      <trkpt lat="37.737110" lon="-121.554770">
        <ele>93.613</ele>
        <time>2018-12-29T00:27:37Z</time>
      </trkpt>
      <trkpt lat="37.737880" lon="-121.555700">
        <ele>84.308</ele>
        <time>2018-12-29T00:27:57Z</time>
      </trkpt>
      <trkpt lat="37.738550" lon="-121.556510">
        <ele>85.060</ele>
        <time>2018-12-29T00:28:17Z</time>
      </trkpt>
      <trkpt lat="37.739590" lon="-121.557810">
        <ele>88.978</ele>
        <time>2018-12-29T00:28:37Z</time>
      </trkpt>
      <trkpt lat="37.739820" lon="-121.558120">
        <ele>88.583</ele>
        <time>2018-12-29T00:28:57Z</time>
      </trkpt>
      <trkpt lat="37.740060" lon="-121.558440">
        <ele>89.022</ele>
        <time>2018-12-29T00:29:17Z</time>
      </trkpt>
      <trkpt lat="37.740200" lon="-121.558610">
        <ele>88.296</ele>
        <time>2018-12-29T00:29:37Z</time>
      </trkpt>
      <trkpt lat="37.740330" lon="-121.558790">
        <ele>87.959</ele>
        <time>2018-12-29T00:29:57Z</time>
      </trkpt>
      <trkpt lat="37.740510" lon="-121.559030">
        <ele>86.823</ele>
        <time>2018-12-29T00:30:17Z</time>
      </trkpt>
      <trkpt lat="37.740690" lon="-121.559270">
        <ele>85.416</ele>
        <time>2018-12-29T00:30:37Z</time>
      </trkpt>
      <trkpt lat="37.740840" lon="-121.559480">
        <ele>86.681</ele>
        <time>2018-12-29T00:30:57Z</time>
      </trkpt>
      <trkpt lat="37.741000" lon="-121.559700">
        <ele>87.361</ele>
        <time>2018-12-29T00:31:17Z</time>
      </trkpt>
      <trkpt lat="37.741090" lon="-121.559820">
        <ele>87.917</ele>
        <time>2018-12-29T00:31:37Z</time>
      </trkpt>
      <trkpt lat="37.741190" lon="-121.559970">
        <ele>87.908</ele>
        <time>2018-12-29T00:31:57Z</time>
      </trkpt>
      <trkpt lat="37.741300" lon="-121.560130">
        <ele>87.751</ele>
        <time>2018-12-29T00:32:17Z</time>
      </trkpt>
      <trkpt lat="37.741380" lon="-121.560250">
        <ele>87.549</ele>
        <time>2018-12-29T00:32:37Z</time>
      </trkpt>
      <trkpt lat="37.741450" lon="-121.560350">
        <ele>87.694</ele>
        <time>2018-12-29T00:32:57Z</time>
      </trkpt>
      <trkpt lat="37.741520" lon="-121.560470">
        <ele>87.673</ele>
        <time>2018-12-29T00:33:17Z</time>
      </trkpt>
      <trkpt lat="37.741590" lon="-121.560600">
        <ele>86.497</ele>
        <time>2018-12-29T00:33:37Z</time>
      </trkpt>
      <trkpt lat="37.741670" lon="-121.560750">
        <ele>84.770</ele>
        <time>2018-12-29T00:33:57Z</time>
      </trkpt>
      <trkpt lat="37.741750" lon="-121.560890">
        <ele>83.144</ele>
        <time>2018-12-29T00:34:17Z</time>
      </trkpt>
      <trkpt lat="37.741800" lon="-121.561010">
        <ele>81.557</ele>
        <time>2018-12-29T00:34:37Z</time>
      </trkpt>
      <trkpt lat="37.741880" lon="-121.561170">
        <ele>79.298</ele>
        <time>2018-12-29T00:34:57Z</time>
      </trkpt>
      <trkpt lat="37.741940" lon="-121.561330">
        <ele>76.515</ele>
        <time>2018-12-29T00:35:17Z</time>
      </trkpt>
      <trkpt lat="37.742010" lon="-121.561490">
        <ele>73.926</ele>
        <time>2018-12-29T00:35:37Z</time>
      </trkpt>
      <trkpt lat="37.742050" lon="-121.561610">
        <ele>72.908</ele>
        <time>2018-12-29T00:35:57Z</time>
      </trkpt>
      <trkpt lat="37.742100" lon="-121.561750">
        <ele>72.212</ele>
        <time>2018-12-29T00:36:17Z</time>
      </trkpt>
      <trkpt lat="37.742160" lon="-121.561900">
        <ele>72.890</ele>
        <time>2018-12-29T00:36:37Z</time>
      </trkpt>
      <trkpt lat="37.742210" lon="-121.562070">
        <ele>74.315</ele>
        <time>2018-12-29T00:36:57Z</time>
      </trkpt>
      <trkpt lat="37.742260" lon="-121.562220">
        <ele>75.324</ele>
        <time>2018-12-29T00:37:17Z</time>
      </trkpt>
      <trkpt lat="37.742300" lon="-121.562390">
        <ele>76.558</ele>
        <time>2018-12-29T00:37:37Z</time>
      </trkpt>
      <trkpt lat="37.742350" lon="-121.562570">
        <ele>77.981</ele>
        <time>2018-12-29T00:37:57Z</time>
      </trkpt>
      <trkpt lat="37.742380" lon="-121.562720">
        <ele>79.445</ele>
        <time>2018-12-29T00:38:17Z</time>
      </trkpt>
      <trkpt lat="37.742420" lon="-121.562880">
        <ele>81.498</ele>
        <time>2018-12-29T00:38:37Z</time>
      </trkpt>
      <trkpt lat="37.742450" lon="-121.563040">
        <ele>82.681</ele>
        <time>2018-12-29T00:38:57Z</time>
      </trkpt>
      <trkpt lat="37.742480" lon="-121.563200">
        <ele>83.661</ele>
        <time>2018-12-29T00:39:17Z</time>
      </trkpt>
      <trkpt lat="37.742510" lon="-121.563390">
        <ele>85.317</ele>
        <time>2018-12-29T00:39:37Z</time>
      </trkpt>
      <trkpt lat="37.742530" lon="-121.563550">
        <ele>86.308</ele>
        <time>2018-12-29T00:39:57Z</time>
      </trkpt>
      <trkpt lat="37.742540" lon="-121.563710">
        <ele>87.191</ele>
        <time>2018-12-29T00:40:17Z</time>
      </trkpt>
      <trkpt lat="37.742560" lon="-121.563850">
        <ele>87.669</ele>
        <time>2018-12-29T00:40:37Z</time>
      </trkpt>
      <trkpt lat="37.742570" lon="-121.563970">
        <ele>87.994</ele>
        <time>2018-12-29T00:40:57Z</time>
      </trkpt>
      <trkpt lat="37.742570" lon="-121.564050">
        <ele>88.243</ele>
        <time>2018-12-29T00:41:17Z</time>
      </trkpt>
      <trkpt lat="37.742580" lon="-121.564230">
        <ele>88.647</ele>
        <time>2018-12-29T00:41:37Z</time>
      </trkpt>
      <trkpt lat="37.742590" lon="-121.564380">
        <ele>88.930</ele>
        <time>2018-12-29T00:41:57Z</time>
      </trkpt>
      <trkpt lat="37.742590" lon="-121.564560">
        <ele>89.294</ele>
        <time>2018-12-29T00:42:17Z</time>
      </trkpt>
      <trkpt lat="37.742590" lon="-121.564720">
        <ele>89.697</ele>
        <time>2018-12-29T00:42:37Z</time>
      </trkpt>
      <trkpt lat="37.742590" lon="-121.564860">
        <ele>90.051</ele>
        <time>2018-12-29T00:42:57Z</time>
      </trkpt>
      <trkpt lat="37.742580" lon="-121.564970">
        <ele>90.201</ele>
        <time>2018-12-29T00:43:17Z</time>
      </trkpt>
      <trkpt lat="37.742580" lon="-121.565090">
        <ele>90.611</ele>
        <time>2018-12-29T00:43:37Z</time>
      </trkpt>
      <trkpt lat="37.742570" lon="-121.565210">
        <ele>90.908</ele>
        <time>2018-12-29T00:43:57Z</time>
      </trkpt>
      <trkpt lat="37.742560" lon="-121.565370">
        <ele>91.538</ele>
        <time>2018-12-29T00:44:17Z</time>
      </trkpt>
      <trkpt lat="37.742530" lon="-121.565710">
        <ele>92.646</ele>
        <time>2018-12-29T00:44:37Z</time>
      </trkpt>
      <trkpt lat="37.742490" lon="-121.566230">
        <ele>94.251</ele>
        <time>2018-12-29T00:44:57Z</time>
      </trkpt>
      <trkpt lat="37.742440" lon="-121.566900">
        <ele>94.030</ele>
        <time>2018-12-29T00:45:17Z</time>
      </trkpt>
      <trkpt lat="37.742400" lon="-121.567560">
        <ele>95.174</ele>
        <time>2018-12-29T00:45:37Z</time>
      </trkpt>
      <trkpt lat="37.742370" lon="-121.567880">
        <ele>94.787</ele>
        <time>2018-12-29T00:45:57Z</time>
      </trkpt>
      <trkpt lat="37.742350" lon="-121.568240">
        <ele>95.061</ele>
        <time>2018-12-29T00:46:17Z</time>
      </trkpt>
      <trkpt lat="37.742330" lon="-121.568500">
        <ele>95.154</ele>
        <time>2018-12-29T00:46:37Z</time>
      </trkpt>
      <trkpt lat="37.742310" lon="-121.568760">
        <ele>94.926</ele>
        <time>2018-12-29T00:46:57Z</time>
      </trkpt>
      <trkpt lat="37.742280" lon="-121.569100">
        <ele>95.047</ele>
        <time>2018-12-29T00:47:17Z</time>
      </trkpt>
      <trkpt lat="37.742260" lon="-121.569470">
        <ele>95.511</ele>
        <time>2018-12-29T00:47:37Z</time>
      </trkpt>
      <trkpt lat="37.742240" lon="-121.569790">
        <ele>96.108</ele>
        <time>2018-12-29T00:47:57Z</time>
      </trkpt>
      <trkpt lat="37.742220" lon="-121.570190">
        <ele>96.965</ele>
        <time>2018-12-29T00:48:17Z</time>
      </trkpt>
      <trkpt lat="37.742170" lon="-121.571100">
        <ele>97.373</ele>
        <time>2018-12-29T00:48:37Z</time>
      </trkpt>
      <trkpt lat="37.742070" lon="-121.572260">
        <ele>92.178</ele>
        <time>2018-12-29T00:48:57Z</time>
      </trkpt>
      <trkpt lat="37.742060" lon="-121.572430">
        <ele>91.467</ele>
        <time>2018-12-29T00:49:17Z</time>
      </trkpt>
      <trkpt lat="37.742050" lon="-121.572610">
        <ele>95.561</ele>
        <time>2018-12-29T00:49:37Z</time>
      </trkpt>
      <trkpt lat="37.741970" lon="-121.573560">
        <ele>97.414</ele>
        <time>2018-12-29T00:49:57Z</time>
      </trkpt>
      <trkpt lat="37.741900" lon="-121.574470">
        <ele>99.338</ele>
        <time>2018-12-29T00:50:17Z</time>
      </trkpt>
      <trkpt lat="37.741820" lon="-121.575500">
        <ele>102.821</ele>
        <time>2018-12-29T00:50:37Z</time>
      </trkpt>
      <trkpt lat="37.741720" lon="-121.576810">
        <ele>106.374</ele>
        <time>2018-12-29T00:50:57Z</time>
      </trkpt>
      <trkpt lat="37.741620" lon="-121.578110">
        <ele>108.756</ele>
        <time>2018-12-29T00:51:17Z</time>
      </trkpt>
      <trkpt lat="37.741570" lon="-121.578750">
        <ele>110.221</ele>
        <time>2018-12-29T00:51:37Z</time>
      </trkpt>
      <trkpt lat="37.741510" lon="-121.579450">
        <ele>111.508</ele>
        <time>2018-12-29T00:51:57Z</time>
      </trkpt>
      <trkpt lat="37.741440" lon="-121.580070">
        <ele>112.190</ele>
        <time>2018-12-29T00:52:17Z</time>
      </trkpt>
      <trkpt lat="37.741360" lon="-121.580590">
        <ele>112.698</ele>
        <time>2018-12-29T00:52:37Z</time>
      </trkpt>
      <trkpt lat="37.741310" lon="-121.580950">
        <ele>112.563</ele>
        <time>2018-12-29T00:52:57Z</time>
      </trkpt>
      <trkpt lat="37.741270" lon="-121.581190">
        <ele>111.852</ele>
        <time>2018-12-29T00:53:17Z</time>
      </trkpt>
      <trkpt lat="37.741230" lon="-121.581440">
        <ele>111.116</ele>
        <time>2018-12-29T00:53:37Z</time>
      </trkpt>
      <trkpt lat="37.741160" lon="-121.581870">
        <ele>110.569</ele>
        <time>2018-12-29T00:53:57Z</time>
      </trkpt>
      <trkpt lat="37.740860" lon="-121.583750">
        <ele>105.873</ele>
        <time>2018-12-29T00:54:17Z</time>
      </trkpt>
      <trkpt lat="37.740600" lon="-121.585440">
        <ele>102.356</ele>
        <time>2018-12-29T00:54:37Z</time>
      </trkpt>
      <trkpt lat="37.740290" lon="-121.587350">
        <ele>103.436</ele>
        <time>2018-12-29T00:54:57Z</time>
      </trkpt>
      <trkpt lat="37.740040" lon="-121.589000">
        <ele>107.217</ele>
        <time>2018-12-29T00:55:17Z</time>
      </trkpt>
      <trkpt lat="37.739880" lon="-121.589960">
        <ele>110.018</ele>
        <time>2018-12-29T00:55:37Z</time>
      </trkpt>
      <trkpt lat="37.739880" lon="-121.589990">
        <ele>110.108</ele>
        <time>2018-12-29T00:55:57Z</time>
      </trkpt>
      <trkpt lat="37.739830" lon="-121.590300">
        <ele>110.796</ele>
        <time>2018-12-29T00:56:17Z</time>
      </trkpt>
      <trkpt lat="37.739770" lon="-121.590740">
        <ele>110.894</ele>
        <time>2018-12-29T00:56:37Z</time>
      </trkpt>
      <trkpt lat="37.739540" lon="-121.592140">
        <ele>114.949</ele>
        <time>2018-12-29T00:56:57Z</time>
      </trkpt>
      <trkpt lat="37.739270" lon="-121.593920">
        <ele>119.568</ele>
        <time>2018-12-29T00:57:17Z</time>
      </trkpt>
      <trkpt lat="37.738990" lon="-121.595700">
        <ele>124.612</ele>
        <time>2018-12-29T00:57:37Z</time>
      </trkpt>
      <trkpt lat="37.738750" lon="-121.597190">
        <ele>129.145</ele>
        <time>2018-12-29T00:57:57Z</time>
      </trkpt>
      <trkpt lat="37.738630" lon="-121.597970">
        <ele>131.579</ele>
        <time>2018-12-29T00:58:17Z</time>
      </trkpt>
      <trkpt lat="37.738530" lon="-121.598620">
        <ele>133.312</ele>
        <time>2018-12-29T00:58:37Z</time>
      </trkpt>
      <trkpt lat="37.738450" lon="-121.599330">
        <ele>134.986</ele>
        <time>2018-12-29T00:58:57Z</time>
      </trkpt>
      <trkpt lat="37.738390" lon="-121.599970">
        <ele>136.760</ele>
        <time>2018-12-29T00:59:17Z</time>
      </trkpt>
      <trkpt lat="37.738350" lon="-121.600520">
        <ele>135.926</ele>
        <time>2018-12-29T00:59:37Z</time>
      </trkpt>
      <trkpt lat="37.738320" lon="-121.601140">
        <ele>136.708</ele>
        <time>2018-12-29T00:59:57Z</time>
      </trkpt>
      <trkpt lat="37.738290" lon="-121.601740">
        <ele>138.371</ele>
        <time>2018-12-29T01:00:17Z</time>
      </trkpt>
      <trkpt lat="37.738270" lon="-121.602310">
        <ele>140.039</ele>
        <time>2018-12-29T01:00:37Z</time>
      </trkpt>
      <trkpt lat="37.738220" lon="-121.603280">
        <ele>144.884</ele>
        <time>2018-12-29T01:00:57Z</time>
      </trkpt>
      <trkpt lat="37.738180" lon="-121.604330">
        <ele>147.283</ele>
        <time>2018-12-29T01:01:17Z</time>
      </trkpt>
      <trkpt lat="37.738140" lon="-121.605170">
        <ele>150.387</ele>
        <time>2018-12-29T01:01:37Z</time>
      </trkpt>
      <trkpt lat="37.738110" lon="-121.605840">
        <ele>150.650</ele>
        <time>2018-12-29T01:01:57Z</time>
      </trkpt>
      <trkpt lat="37.738080" lon="-121.606430">
        <ele>150.364</ele>
        <time>2018-12-29T01:02:17Z</time>
      </trkpt>
      <trkpt lat="37.738040" lon="-121.607050">
        <ele>151.977</ele>
        <time>2018-12-29T01:02:37Z</time>
      </trkpt>
      <trkpt lat="37.737980" lon="-121.607790">
        <ele>154.714</ele>
        <time>2018-12-29T01:02:57Z</time>
      </trkpt>
      <trkpt lat="37.737920" lon="-121.608410">
        <ele>157.754</ele>
        <time>2018-12-29T01:03:17Z</time>
      </trkpt>
      <trkpt lat="37.737850" lon="-121.609050">
        <ele>159.909</ele>
        <time>2018-12-29T01:03:37Z</time>
      </trkpt>
      <trkpt lat="37.737780" lon="-121.609590">
        <ele>161.008</ele>
        <time>2018-12-29T01:03:57Z</time>
      </trkpt>
      <trkpt lat="37.737710" lon="-121.610070">
        <ele>162.254</ele>
        <time>2018-12-29T01:04:17Z</time>
      </trkpt>
      <trkpt lat="37.737630" lon="-121.610610">
        <ele>163.772</ele>
        <time>2018-12-29T01:04:37Z</time>
      </trkpt>
      <trkpt lat="37.737330" lon="-121.612430">
        <ele>168.667</ele>
        <time>2018-12-29T01:04:57Z</time>
      </trkpt>
      <trkpt lat="37.736900" lon="-121.614900">
        <ele>175.466</ele>
        <time>2018-12-29T01:05:17Z</time>
      </trkpt>
      <trkpt lat="37.736560" lon="-121.616880">
        <ele>179.320</ele>
        <time>2018-12-29T01:05:37Z</time>
      </trkpt>
      <trkpt lat="37.736490" lon="-121.617300">
        <ele>179.883</ele>
        <time>2018-12-29T01:05:57Z</time>
      </trkpt>
      <trkpt lat="37.736480" lon="-121.617360">
        <ele>179.837</ele>
        <time>2018-12-29T01:06:17Z</time>
      </trkpt>
      <trkpt lat="37.736280" lon="-121.618490">
        <ele>184.060</ele>
        <time>2018-12-29T01:06:37Z</time>
      </trkpt>
      <trkpt lat="37.735880" lon="-121.620840">
        <ele>190.445</ele>
        <time>2018-12-29T01:06:57Z</time>
      </trkpt>
      <trkpt lat="37.735600" lon="-121.622450">
        <ele>192.247</ele>
        <time>2018-12-29T01:07:17Z</time>
      </trkpt>
      <trkpt lat="37.735340" lon="-121.623910">
        <ele>197.611</ele>
        <time>2018-12-29T01:07:37Z</time>
      </trkpt>
      <trkpt lat="37.735270" lon="-121.624350">
        <ele>199.108</ele>
        <time>2018-12-29T01:07:57Z</time>
      </trkpt>
      <trkpt lat="37.735220" lon="-121.624640">
        <ele>200.937</ele>
        <time>2018-12-29T01:08:17Z</time>
      </trkpt>
      <trkpt lat="37.735060" lon="-121.625580">
        <ele>202.045</ele>
        <time>2018-12-29T01:08:37Z</time>
      </trkpt>
      <trkpt lat="37.734800" lon="-121.627050">
        <ele>205.530</ele>
        <time>2018-12-29T01:08:57Z</time>
      </trkpt>
      <trkpt lat="37.734640" lon="-121.627970">
        <ele>208.499</ele>
        <time>2018-12-29T01:09:17Z</time>
      </trkpt>
      <trkpt lat="37.734580" lon="-121.628220">
        <ele>209.323</ele>
        <time>2018-12-29T01:09:37Z</time>
      </trkpt>
      <trkpt lat="37.734570" lon="-121.628290">
        <ele>209.496</ele>
        <time>2018-12-29T01:09:57Z</time>
      </trkpt>
      <trkpt lat="37.734520" lon="-121.628500">
        <ele>209.380</ele>
        <time>2018-12-29T01:10:17Z</time>
      </trkpt>
      <trkpt lat="37.734460" lon="-121.628710">
        <ele>209.783</ele>
        <time>2018-12-29T01:10:37Z</time>
      </trkpt>
      <trkpt lat="37.734400" lon="-121.628920">
        <ele>210.682</ele>
        <time>2018-12-29T01:10:57Z</time>
      </trkpt>
      <trkpt lat="37.734360" lon="-121.629040">
        <ele>211.343</ele>
        <time>2018-12-29T01:11:17Z</time>
      </trkpt>
      <trkpt lat="37.734330" lon="-121.629150">
        <ele>211.817</ele>
        <time>2018-12-29T01:11:37Z</time>
      </trkpt>
      <trkpt lat="37.734240" lon="-121.629420">
        <ele>211.808</ele>
        <time>2018-12-29T01:11:57Z</time>
      </trkpt>
      <trkpt lat="37.734170" lon="-121.629600">
        <ele>212.371</ele>
        <time>2018-12-29T01:12:17Z</time>
      </trkpt>
      <trkpt lat="37.734110" lon="-121.629780">
        <ele>213.819</ele>
        <time>2018-12-29T01:12:37Z</time>
      </trkpt>
      <trkpt lat="37.734020" lon="-121.629990">
        <ele>214.054</ele>
        <time>2018-12-29T01:12:57Z</time>
      </trkpt>
      <trkpt lat="37.733960" lon="-121.630120">
        <ele>214.013</ele>
        <time>2018-12-29T01:13:17Z</time>
      </trkpt>
      <trkpt lat="37.733880" lon="-121.630350">
        <ele>211.377</ele>
        <time>2018-12-29T01:13:37Z</time>
      </trkpt>
      <trkpt lat="37.733750" lon="-121.630620">
        <ele>205.130</ele>
        <time>2018-12-29T01:13:57Z</time>
      </trkpt>
      <trkpt lat="37.733630" lon="-121.630850">
        <ele>210.714</ele>
        <time>2018-12-29T01:14:17Z</time>
      </trkpt>
      <trkpt lat="37.733490" lon="-121.631090">
        <ele>217.017</ele>
        <time>2018-12-29T01:14:37Z</time>
      </trkpt>
      <trkpt lat="37.733420" lon="-121.631210">
        <ele>217.578</ele>
        <time>2018-12-29T01:14:57Z</time>
      </trkpt>
      <trkpt lat="37.733280" lon="-121.631430">
        <ele>219.033</ele>
        <time>2018-12-29T01:15:17Z</time>
      </trkpt>
      <trkpt lat="37.733080" lon="-121.631720">
        <ele>218.926</ele>
        <time>2018-12-29T01:15:37Z</time>
      </trkpt>
      <trkpt lat="37.732940" lon="-121.631920">
        <ele>219.308</ele>
        <time>2018-12-29T01:15:57Z</time>
      </trkpt>
      <trkpt lat="37.732780" lon="-121.632120">
        <ele>219.130</ele>
        <time>2018-12-29T01:16:17Z</time>
      </trkpt>
      <trkpt lat="37.732710" lon="-121.632210">
        <ele>219.448</ele>
        <time>2018-12-29T01:16:37Z</time>
      </trkpt>
      <trkpt lat="37.732620" lon="-121.632330">
        <ele>219.883</ele>
        <time>2018-12-29T01:16:57Z</time>
      </trkpt>
      <trkpt lat="37.732390" lon="-121.632600">
        <ele>219.682</ele>
        <time>2018-12-29T01:17:17Z</time>
      </trkpt>
      <trkpt lat="37.732160" lon="-121.632840">
        <ele>219.696</ele>
        <time>2018-12-29T01:17:37Z</time>
      </trkpt>
      <trkpt lat="37.732060" lon="-121.632950">
        <ele>220.279</ele>
        <time>2018-12-29T01:17:57Z</time>
      </trkpt>
      <trkpt lat="37.731950" lon="-121.633040">
        <ele>219.553</ele>
        <time>2018-12-29T01:18:17Z</time>
      </trkpt>
      <trkpt lat="37.731650" lon="-121.633300">
        <ele>220.086</ele>
        <time>2018-12-29T01:18:37Z</time>
      </trkpt>
      <trkpt lat="37.731280" lon="-121.633580">
        <ele>221.293</ele>
        <time>2018-12-29T01:18:57Z</time>
      </trkpt>
      <trkpt lat="37.730890" lon="-121.633840">
        <ele>222.765</ele>
        <time>2018-12-29T01:19:17Z</time>
      </trkpt>
      <trkpt lat="37.730520" lon="-121.634090">
        <ele>225.221</ele>
        <time>2018-12-29T01:19:37Z</time>
      </trkpt>
      <trkpt lat="37.730180" lon="-121.634310">
        <ele>227.408</ele>
        <time>2018-12-29T01:19:57Z</time>
      </trkpt>
      <trkpt lat="37.730050" lon="-121.634400">
        <ele>228.212</ele>
        <time>2018-12-29T01:20:17Z</time>
      </trkpt>
      <trkpt lat="37.729780" lon="-121.634600">
        <ele>229.590</ele>
        <time>2018-12-29T01:20:37Z</time>
      </trkpt>
      <trkpt lat="37.729510" lon="-121.634810">
        <ele>230.725</ele>
        <time>2018-12-29T01:20:57Z</time>
      </trkpt>
      <trkpt lat="37.729240" lon="-121.635070">
        <ele>232.424</ele>
        <time>2018-12-29T01:21:17Z</time>
      </trkpt>
      <trkpt lat="37.729000" lon="-121.635290">
        <ele>233.648</ele>
        <time>2018-12-29T01:21:37Z</time>
      </trkpt>
      <trkpt lat="37.728800" lon="-121.635500">
        <ele>235.131</ele>
        <time>2018-12-29T01:21:57Z</time>
      </trkpt>
      <trkpt lat="37.728590" lon="-121.635740">
        <ele>236.695</ele>
        <time>2018-12-29T01:22:17Z</time>
      </trkpt>
      <trkpt lat="37.728340" lon="-121.636050">
        <ele>238.558</ele>
        <time>2018-12-29T01:22:37Z</time>
      </trkpt>
      <trkpt lat="37.728190" lon="-121.636250">
        <ele>238.823</ele>
        <time>2018-12-29T01:22:57Z</time>
      </trkpt>
      <trkpt lat="37.727970" lon="-121.636550">
        <ele>240.583</ele>
        <time>2018-12-29T01:23:17Z</time>
      </trkpt>
      <trkpt lat="37.727880" lon="-121.636700">
        <ele>240.611</ele>
        <time>2018-12-29T01:23:37Z</time>
      </trkpt>
      <trkpt lat="37.727780" lon="-121.636860">
        <ele>241.608</ele>
        <time>2018-12-29T01:23:57Z</time>
      </trkpt>
      <trkpt lat="37.727670" lon="-121.637040">
        <ele>242.495</ele>
        <time>2018-12-29T01:24:17Z</time>
      </trkpt>
      <trkpt lat="37.727500" lon="-121.637330">
        <ele>242.893</ele>
        <time>2018-12-29T01:24:37Z</time>
      </trkpt>
      <trkpt lat="37.727370" lon="-121.637590">
        <ele>244.058</ele>
        <time>2018-12-29T01:24:57Z</time>
      </trkpt>
      <trkpt lat="37.727250" lon="-121.637830">
        <ele>243.957</ele>
        <time>2018-12-29T01:25:17Z</time>
      </trkpt>
      <trkpt lat="37.727120" lon="-121.638110">
        <ele>245.261</ele>
        <time>2018-12-29T01:25:37Z</time>
      </trkpt>
      <trkpt lat="37.727030" lon="-121.638320">
        <ele>245.344</ele>
        <time>2018-12-29T01:25:57Z</time>
      </trkpt>
      <trkpt lat="37.726890" lon="-121.638660">
        <ele>247.388</ele>
        <time>2018-12-29T01:26:17Z</time>
      </trkpt>
      <trkpt lat="37.726830" lon="-121.638820">
        <ele>248.031</ele>
        <time>2018-12-29T01:26:37Z</time>
      </trkpt>
      <trkpt lat="37.726780" lon="-121.638970">
        <ele>247.836</ele>
        <time>2018-12-29T01:26:57Z</time>
      </trkpt>
      <trkpt lat="37.726740" lon="-121.639100">
        <ele>247.817</ele>
        <time>2018-12-29T01:27:17Z</time>
      </trkpt>
      <trkpt lat="37.726680" lon="-121.639270">
        <ele>248.718</ele>
        <time>2018-12-29T01:27:37Z</time>
      </trkpt>
      <trkpt lat="37.726630" lon="-121.639440">
        <ele>250.308</ele>
        <time>2018-12-29T01:27:57Z</time>
      </trkpt>
      <trkpt lat="37.726550" lon="-121.639700">
        <ele>250.926</ele>
        <time>2018-12-29T01:28:17Z</time>
      </trkpt>
      <trkpt lat="37.726490" lon="-121.639940">
        <ele>250.384</ele>
        <time>2018-12-29T01:28:37Z</time>
      </trkpt>
      <trkpt lat="37.726430" lon="-121.640200">
        <ele>251.119</ele>
        <time>2018-12-29T01:28:57Z</time>
      </trkpt>
      <trkpt lat="37.726390" lon="-121.640380">
        <ele>252.388</ele>
        <time>2018-12-29T01:29:17Z</time>
      </trkpt>
      <trkpt lat="37.726350" lon="-121.640590">
        <ele>253.472</ele>
        <time>2018-12-29T01:29:37Z</time>
      </trkpt>
      <trkpt lat="37.726290" lon="-121.640960">
        <ele>254.765</ele>
        <time>2018-12-29T01:29:57Z</time>
      </trkpt>
      <trkpt lat="37.726270" lon="-121.641130">
        <ele>254.859</ele>
        <time>2018-12-29T01:30:17Z</time>
      </trkpt>
      <trkpt lat="37.726240" lon="-121.641310">
        <ele>254.682</ele>
        <time>2018-12-29T01:30:37Z</time>
      </trkpt>
      <trkpt lat="37.726230" lon="-121.641380">
        <ele>254.647</ele>
        <time>2018-12-29T01:30:57Z</time>
      </trkpt>
      <trkpt lat="37.726220" lon="-121.641470">
        <ele>254.829</ele>
        <time>2018-12-29T01:31:17Z</time>
      </trkpt>
      <trkpt lat="37.726210" lon="-121.641670">
        <ele>255.121</ele>
        <time>2018-12-29T01:31:37Z</time>
      </trkpt>
      <trkpt lat="37.726180" lon="-121.641960">
        <ele>255.808</ele>
        <time>2018-12-29T01:31:57Z</time>
      </trkpt>
      <trkpt lat="37.726170" lon="-121.642170">
        <ele>256.517</ele>
        <time>2018-12-29T01:32:17Z</time>
      </trkpt>
      <trkpt lat="37.726150" lon="-121.642500">
        <ele>257.675</ele>
        <time>2018-12-29T01:32:37Z</time>
      </trkpt>
      <trkpt lat="37.726110" lon="-121.643110">
        <ele>258.130</ele>
        <time>2018-12-29T01:32:57Z</time>
      </trkpt>
      <trkpt lat="37.726080" lon="-121.643470">
        <ele>259.059</ele>
        <time>2018-12-29T01:33:17Z</time>
      </trkpt>
      <trkpt lat="37.726060" lon="-121.643770">
        <ele>259.483</ele>
        <time>2018-12-29T01:33:37Z</time>
      </trkpt>
      <trkpt lat="37.726040" lon="-121.644010">
        <ele>259.836</ele>
        <time>2018-12-29T01:33:57Z</time>
      </trkpt>
      <trkpt lat="37.726010" lon="-121.644280">
        <ele>260.710</ele>
        <time>2018-12-29T01:34:17Z</time>
      </trkpt>
      <trkpt lat="37.725970" lon="-121.644590">
        <ele>262.463</ele>
        <time>2018-12-29T01:34:37Z</time>
      </trkpt>
      <trkpt lat="37.725920" lon="-121.644870">
        <ele>262.256</ele>
        <time>2018-12-29T01:34:57Z</time>
      </trkpt>
      <trkpt lat="37.725870" lon="-121.645140">
        <ele>262.759</ele>
        <time>2018-12-29T01:35:17Z</time>
      </trkpt>
      <trkpt lat="37.725810" lon="-121.645410">
        <ele>263.714</ele>
        <time>2018-12-29T01:35:37Z</time>
      </trkpt>
      <trkpt lat="37.725760" lon="-121.645630">
        <ele>264.508</ele>
        <time>2018-12-29T01:35:57Z</time>
      </trkpt>
      <trkpt lat="37.725690" lon="-121.645900">
        <ele>266.578</ele>
        <time>2018-12-29T01:36:17Z</time>
      </trkpt>
      <trkpt lat="37.725610" lon="-121.646150">
        <ele>265.896</ele>
        <time>2018-12-29T01:36:37Z</time>
      </trkpt>
      <trkpt lat="37.725510" lon="-121.646470">
        <ele>267.281</ele>
        <time>2018-12-29T01:36:57Z</time>
      </trkpt>
      <trkpt lat="37.725460" lon="-121.646630">
        <ele>268.160</ele>
        <time>2018-12-29T01:37:17Z</time>
      </trkpt>
      <trkpt lat="37.725400" lon="-121.646810">
        <ele>268.914</ele>
        <time>2018-12-29T01:37:37Z</time>
      </trkpt>
      <trkpt lat="37.725280" lon="-121.647110">
        <ele>268.767</ele>
        <time>2018-12-29T01:37:57Z</time>
      </trkpt>
      <trkpt lat="37.725050" lon="-121.647650">
        <ele>270.421</ele>
        <time>2018-12-29T01:38:17Z</time>
      </trkpt>
      <trkpt lat="37.724800" lon="-121.648220">
        <ele>272.344</ele>
        <time>2018-12-29T01:38:37Z</time>
      </trkpt>
      <trkpt lat="37.724550" lon="-121.648810">
        <ele>274.899</ele>
        <time>2018-12-29T01:38:57Z</time>
      </trkpt>
      <trkpt lat="37.724320" lon="-121.649340">
        <ele>277.507</ele>
        <time>2018-12-29T01:39:17Z</time>
      </trkpt>
      <trkpt lat="37.724130" lon="-121.649770">
        <ele>278.727</ele>
        <time>2018-12-29T01:39:37Z</time>
      </trkpt>
      <trkpt lat="37.723890" lon="-121.650340">
        <ele>280.308</ele>
        <time>2018-12-29T01:39:57Z</time>
      </trkpt>
      <trkpt lat="37.723700" lon="-121.650770">
        <ele>280.642</ele>
        <time>2018-12-29T01:40:17Z</time>
      </trkpt>
      <trkpt lat="37.723520" lon="-121.651180">
        <ele>283.450</ele>
        <time>2018-12-29T01:40:37Z</time>
      </trkpt>
      <trkpt lat="37.723400" lon="-121.651460">
        <ele>282.435</ele>
        <time>2018-12-29T01:40:57Z</time>
      </trkpt>
      <trkpt lat="37.723210" lon="-121.651890">
        <ele>284.844</ele>
        <time>2018-12-29T01:41:17Z</time>
      </trkpt>
      <trkpt lat="37.723020" lon="-121.652300">
        <ele>284.328</ele>
        <time>2018-12-29T01:41:37Z</time>
      </trkpt>
      <trkpt lat="37.722840" lon="-121.652720">
        <ele>285.351</ele>
        <time>2018-12-29T01:41:57Z</time>
      </trkpt>
      <trkpt lat="37.722700" lon="-121.653040">
        <ele>286.625</ele>
        <time>2018-12-29T01:42:17Z</time>
      </trkpt>
      <trkpt lat="37.722520" lon="-121.653430">
        <ele>287.168</ele>
        <time>2018-12-29T01:42:37Z</time>
      </trkpt>
      <trkpt lat="37.722400" lon="-121.653710">
        <ele>288.326</ele>
        <time>2018-12-29T01:42:57Z</time>
      </trkpt>
      <trkpt lat="37.722190" lon="-121.654140">
        <ele>288.847</ele>
        <time>2018-12-29T01:43:17Z</time>
      </trkpt>
      <trkpt lat="37.722010" lon="-121.654540">
        <ele>290.611</ele>
        <time>2018-12-29T01:43:37Z</time>
      </trkpt>
      <trkpt lat="37.721460" lon="-121.655680">
        <ele>294.908</ele>
        <time>2018-12-29T01:43:57Z</time>
      </trkpt>
      <trkpt lat="37.721330" lon="-121.655950">
        <ele>296.115</ele>
        <time>2018-12-29T01:44:17Z</time>
      </trkpt>
      <trkpt lat="37.721180" lon="-121.656270">
        <ele>297.373</ele>
        <time>2018-12-29T01:44:37Z</time>
      </trkpt>
      <trkpt lat="37.721040" lon="-121.656570">
        <ele>299.218</ele>
        <time>2018-12-29T01:44:57Z</time>
      </trkpt>
      <trkpt lat="37.720910" lon="-121.656810">
        <ele>298.927</ele>
        <time>2018-12-29T01:45:17Z</time>
      </trkpt>
      <trkpt lat="37.720820" lon="-121.657020">
        <ele>300.421</ele>
        <time>2018-12-29T01:45:37Z</time>
      </trkpt>
      <trkpt lat="37.720630" lon="-121.657430">
        <ele>300.924</ele>
        <time>2018-12-29T01:45:57Z</time>
      </trkpt>
      <trkpt lat="37.720380" lon="-121.658000">
        <ele>302.528</ele>
        <time>2018-12-29T01:46:17Z</time>
      </trkpt>
      <trkpt lat="37.720220" lon="-121.658380">
        <ele>304.651</ele>
        <time>2018-12-29T01:46:37Z</time>
      </trkpt>
      <trkpt lat="37.720130" lon="-121.658590">
        <ele>304.157</ele>
        <time>2018-12-29T01:46:57Z</time>
      </trkpt>
      <trkpt lat="37.720080" lon="-121.658720">
        <ele>304.300</ele>
        <time>2018-12-29T01:47:17Z</time>
      </trkpt>
      <trkpt lat="37.720020" lon="-121.658870">
        <ele>305.320</ele>
        <time>2018-12-29T01:47:37Z</time>
      </trkpt>
      <trkpt lat="37.719940" lon="-121.659100">
        <ele>306.508</ele>
        <time>2018-12-29T01:47:57Z</time>
      </trkpt>
      <trkpt lat="37.719810" lon="-121.659420">
        <ele>306.258</ele>
        <time>2018-12-29T01:48:17Z</time>
      </trkpt>
      <trkpt lat="37.719630" lon="-121.659900">
        <ele>307.566</ele>
        <time>2018-12-29T01:48:37Z</time>
      </trkpt>
      <trkpt lat="37.719570" lon="-121.660100">
        <ele>307.481</ele>
        <time>2018-12-29T01:48:57Z</time>
      </trkpt>
      <trkpt lat="37.719460" lon="-121.660420">
        <ele>307.450</ele>
        <time>2018-12-29T01:49:17Z</time>
      </trkpt>
      <trkpt lat="37.719400" lon="-121.660610">
        <ele>307.724</ele>
        <time>2018-12-29T01:49:37Z</time>
      </trkpt>
      <trkpt lat="37.719320" lon="-121.660840">
        <ele>308.247</ele>
        <time>2018-12-29T01:49:57Z</time>
      </trkpt>
      <trkpt lat="37.719170" lon="-121.661340">
        <ele>308.411</ele>
        <time>2018-12-29T01:50:17Z</time>
      </trkpt>
      <trkpt lat="37.719020" lon="-121.661890">
        <ele>308.024</ele>
        <time>2018-12-29T01:50:37Z</time>
      </trkpt>
      <trkpt lat="37.718790" lon="-121.662700">
        <ele>307.768</ele>
        <time>2018-12-29T01:50:57Z</time>
      </trkpt>
      <trkpt lat="37.718650" lon="-121.663160">
        <ele>306.542</ele>
        <time>2018-12-29T01:51:17Z</time>
      </trkpt>
      <trkpt lat="37.718600" lon="-121.663360">
        <ele>306.326</ele>
        <time>2018-12-29T01:51:37Z</time>
      </trkpt>
      <trkpt lat="37.718410" lon="-121.664040">
        <ele>304.208</ele>
        <time>2018-12-29T01:51:57Z</time>
      </trkpt>
      <trkpt lat="37.718350" lon="-121.664260">
        <ele>303.769</ele>
        <time>2018-12-29T01:52:17Z</time>
      </trkpt>
      <trkpt lat="37.718270" lon="-121.664620">
        <ele>302.697</ele>
        <time>2018-12-29T01:52:37Z</time>
      </trkpt>
      <trkpt lat="37.718210" lon="-121.664930">
        <ele>301.852</ele>
        <time>2018-12-29T01:52:57Z</time>
      </trkpt>
      <trkpt lat="37.718160" lon="-121.665240">
        <ele>300.721</ele>
        <time>2018-12-29T01:53:17Z</time>
      </trkpt>
      <trkpt lat="37.718110" lon="-121.665590">
        <ele>299.755</ele>
        <time>2018-12-29T01:53:37Z</time>
      </trkpt>
      <trkpt lat="37.718080" lon="-121.665920">
        <ele>298.668</ele>
        <time>2018-12-29T01:53:57Z</time>
      </trkpt>
      <trkpt lat="37.718060" lon="-121.666280">
        <ele>297.432</ele>
        <time>2018-12-29T01:54:17Z</time>
      </trkpt>
      <trkpt lat="37.718060" lon="-121.666510">
        <ele>296.945</ele>
        <time>2018-12-29T01:54:37Z</time>
      </trkpt>
      <trkpt lat="37.718050" lon="-121.666870">
        <ele>296.275</ele>
        <time>2018-12-29T01:54:57Z</time>
      </trkpt>
      <trkpt lat="37.718060" lon="-121.667070">
        <ele>295.528</ele>
        <time>2018-12-29T01:55:17Z</time>
      </trkpt>
      <trkpt lat="37.718060" lon="-121.667200">
        <ele>295.220</ele>
        <time>2018-12-29T01:55:37Z</time>
      </trkpt>
      <trkpt lat="37.718080" lon="-121.667460">
        <ele>294.608</ele>
        <time>2018-12-29T01:55:57Z</time>
      </trkpt>
      <trkpt lat="37.718090" lon="-121.667690">
        <ele>294.040</ele>
        <time>2018-12-29T01:56:17Z</time>
      </trkpt>
      <trkpt lat="37.718120" lon="-121.667900">
        <ele>293.478</ele>
        <time>2018-12-29T01:56:37Z</time>
      </trkpt>
      <trkpt lat="37.718130" lon="-121.668000">
        <ele>293.293</ele>
        <time>2018-12-29T01:56:57Z</time>
      </trkpt>
      <trkpt lat="37.718160" lon="-121.668260">
        <ele>292.622</ele>
        <time>2018-12-29T01:57:17Z</time>
      </trkpt>
      <trkpt lat="37.718180" lon="-121.668390">
        <ele>292.246</ele>
        <time>2018-12-29T01:57:37Z</time>
      </trkpt>
      <trkpt lat="37.718220" lon="-121.668610">
        <ele>291.639</ele>
        <time>2018-12-29T01:57:57Z</time>
      </trkpt>
      <trkpt lat="37.718270" lon="-121.668860">
        <ele>290.773</ele>
        <time>2018-12-29T01:58:17Z</time>
      </trkpt>
      <trkpt lat="37.718320" lon="-121.669070">
        <ele>289.926</ele>
        <time>2018-12-29T01:58:37Z</time>
      </trkpt>
      <trkpt lat="37.718390" lon="-121.669360">
        <ele>289.398</ele>
        <time>2018-12-29T01:58:57Z</time>
      </trkpt>
      <trkpt lat="37.718430" lon="-121.669510">
        <ele>289.015</ele>
        <time>2018-12-29T01:59:17Z</time>
      </trkpt>
      <trkpt lat="37.718510" lon="-121.669760">
        <ele>288.226</ele>
        <time>2018-12-29T01:59:37Z</time>
      </trkpt>
      <trkpt lat="37.718570" lon="-121.669930">
        <ele>287.408</ele>
        <time>2018-12-29T01:59:57Z</time>
      </trkpt>
      <trkpt lat="37.718640" lon="-121.670160">
        <ele>287.162</ele>
        <time>2018-12-29T02:00:17Z</time>
      </trkpt>
      <trkpt lat="37.718740" lon="-121.670410">
        <ele>286.610</ele>
        <time>2018-12-29T02:00:37Z</time>
      </trkpt>
      <trkpt lat="37.718840" lon="-121.670650">
        <ele>285.325</ele>
        <time>2018-12-29T02:00:57Z</time>
      </trkpt>
      <trkpt lat="37.718980" lon="-121.670950">
        <ele>284.854</ele>
        <time>2018-12-29T02:01:17Z</time>
      </trkpt>
      <trkpt lat="37.719110" lon="-121.671230">
        <ele>283.038</ele>
        <time>2018-12-29T02:01:37Z</time>
      </trkpt>
      <trkpt lat="37.719270" lon="-121.671510">
        <ele>282.811</ele>
        <time>2018-12-29T02:01:57Z</time>
      </trkpt>
      <trkpt lat="37.719440" lon="-121.671790">
        <ele>281.885</ele>
        <time>2018-12-29T02:02:17Z</time>
      </trkpt>
      <trkpt lat="37.719560" lon="-121.671990">
        <ele>281.338</ele>
        <time>2018-12-29T02:02:37Z</time>
      </trkpt>
      <trkpt lat="37.719680" lon="-121.672170">
        <ele>280.497</ele>
        <time>2018-12-29T02:02:57Z</time>
      </trkpt>
      <trkpt lat="37.719950" lon="-121.672550">
        <ele>279.423</ele>
        <time>2018-12-29T02:03:17Z</time>
      </trkpt>
      <trkpt lat="37.720100" lon="-121.672780">
        <ele>279.425</ele>
        <time>2018-12-29T02:03:37Z</time>
      </trkpt>
      <trkpt lat="37.720280" lon="-121.673040">
        <ele>278.308</ele>
        <time>2018-12-29T02:03:57Z</time>
      </trkpt>
      <trkpt lat="37.720370" lon="-121.673170">
        <ele>278.662</ele>
        <time>2018-12-29T02:04:17Z</time>
      </trkpt>
      <trkpt lat="37.720520" lon="-121.673420">
        <ele>277.450</ele>
        <time>2018-12-29T02:04:37Z</time>
      </trkpt>
      <trkpt lat="37.720670" lon="-121.673680">
        <ele>277.435</ele>
        <time>2018-12-29T02:04:57Z</time>
      </trkpt>
      <trkpt lat="37.720810" lon="-121.673930">
        <ele>275.854</ele>
        <time>2018-12-29T02:05:17Z</time>
      </trkpt>
      <trkpt lat="37.720940" lon="-121.674210">
        <ele>276.198</ele>
        <time>2018-12-29T02:05:37Z</time>
      </trkpt>
      <trkpt lat="37.721070" lon="-121.674520">
        <ele>274.151</ele>
        <time>2018-12-29T02:05:57Z</time>
      </trkpt>
      <trkpt lat="37.721190" lon="-121.674840">
        <ele>274.615</ele>
        <time>2018-12-29T02:06:17Z</time>
      </trkpt>
      <trkpt lat="37.721260" lon="-121.675070">
        <ele>274.078</ele>
        <time>2018-12-29T02:06:37Z</time>
      </trkpt>
      <trkpt lat="37.721350" lon="-121.675370">
        <ele>271.952</ele>
        <time>2018-12-29T02:06:57Z</time>
      </trkpt>
      <trkpt lat="37.721370" lon="-121.675480">
        <ele>271.953</ele>
        <time>2018-12-29T02:07:17Z</time>
      </trkpt>
      <trkpt lat="37.721420" lon="-121.675690">
        <ele>272.508</ele>
        <time>2018-12-29T02:07:37Z</time>
      </trkpt>
      <trkpt lat="37.721470" lon="-121.675910">
        <ele>272.408</ele>
        <time>2018-12-29T02:07:57Z</time>
      </trkpt>
      <trkpt lat="37.721490" lon="-121.676050">
        <ele>272.298</ele>
        <time>2018-12-29T02:08:17Z</time>
      </trkpt>
      <trkpt lat="37.721530" lon="-121.676280">
        <ele>271.656</ele>
        <time>2018-12-29T02:08:37Z</time>
      </trkpt>
      <trkpt lat="37.721580" lon="-121.676610">
        <ele>268.731</ele>
        <time>2018-12-29T02:08:57Z</time>
      </trkpt>
      <trkpt lat="37.721600" lon="-121.676820">
        <ele>267.590</ele>
        <time>2018-12-29T02:09:17Z</time>
      </trkpt>
      <trkpt lat="37.721670" lon="-121.677550">
        <ele>260.494</ele>
        <time>2018-12-29T02:09:37Z</time>
      </trkpt>
      <trkpt lat="37.721730" lon="-121.678130">
        <ele>266.567</ele>
        <time>2018-12-29T02:09:57Z</time>
      </trkpt>
      <trkpt lat="37.721850" lon="-121.679240">
        <ele>260.271</ele>
        <time>2018-12-29T02:10:17Z</time>
      </trkpt>
      <trkpt lat="37.721880" lon="-121.679590">
        <ele>256.464</ele>
        <time>2018-12-29T02:10:37Z</time>
      </trkpt>
      <trkpt lat="37.721910" lon="-121.679940">
        <ele>255.026</ele>
        <time>2018-12-29T02:10:57Z</time>
      </trkpt>
      <trkpt lat="37.721940" lon="-121.680240">
        <ele>254.347</ele>
        <time>2018-12-29T02:11:17Z</time>
      </trkpt>
      <trkpt lat="37.721950" lon="-121.680420">
        <ele>254.511</ele>
        <time>2018-12-29T02:11:37Z</time>
      </trkpt>
      <trkpt lat="37.721960" lon="-121.680700">
        <ele>255.008</ele>
        <time>2018-12-29T02:11:57Z</time>
      </trkpt>
      <trkpt lat="37.721960" lon="-121.680940">
        <ele>256.045</ele>
        <time>2018-12-29T02:12:17Z</time>
      </trkpt>
      <trkpt lat="37.721950" lon="-121.681220">
        <ele>258.053</ele>
        <time>2018-12-29T02:12:37Z</time>
      </trkpt>
      <trkpt lat="37.721940" lon="-121.681530">
        <ele>259.378</ele>
        <time>2018-12-29T02:12:57Z</time>
      </trkpt>
      <trkpt lat="37.721920" lon="-121.681740">
        <ele>259.627</ele>
        <time>2018-12-29T02:13:17Z</time>
      </trkpt>
      <trkpt lat="37.721900" lon="-121.681910">
        <ele>259.621</ele>
        <time>2018-12-29T02:13:37Z</time>
      </trkpt>
      <trkpt lat="37.721880" lon="-121.682110">
        <ele>259.374</ele>
        <time>2018-12-29T02:13:57Z</time>
      </trkpt>
      <trkpt lat="37.721820" lon="-121.682500">
        <ele>258.938</ele>
        <time>2018-12-29T02:14:17Z</time>
      </trkpt>
      <trkpt lat="37.721740" lon="-121.682920">
        <ele>258.041</ele>
        <time>2018-12-29T02:14:37Z</time>
      </trkpt>
      <trkpt lat="37.721640" lon="-121.683420">
        <ele>255.931</ele>
        <time>2018-12-29T02:14:57Z</time>
      </trkpt>
      <trkpt lat="37.721520" lon="-121.684040">
        <ele>255.761</ele>
        <time>2018-12-29T02:15:17Z</time>
      </trkpt>
      <trkpt lat="37.721280" lon="-121.685180">
        <ele>253.407</ele>
        <time>2018-12-29T02:15:37Z</time>
      </trkpt>
      <trkpt lat="37.721180" lon="-121.685690">
        <ele>251.608</ele>
        <time>2018-12-29T02:15:57Z</time>
      </trkpt>
      <trkpt lat="37.721090" lon="-121.686150">
        <ele>250.476</ele>
        <time>2018-12-29T02:16:17Z</time>
      </trkpt>
      <trkpt lat="37.720990" lon="-121.686670">
        <ele>250.654</ele>
        <time>2018-12-29T02:16:37Z</time>
      </trkpt>
      <trkpt lat="37.720920" lon="-121.686980">
        <ele>249.869</ele>
        <time>2018-12-29T02:16:57Z</time>
      </trkpt>
      <trkpt lat="37.720860" lon="-121.687270">
        <ele>249.758</ele>
        <time>2018-12-29T02:17:17Z</time>
      </trkpt>
      <trkpt lat="37.720590" lon="-121.688610">
        <ele>246.942</ele>
        <time>2018-12-29T02:17:37Z</time>
      </trkpt>
      <trkpt lat="37.719860" lon="-121.692200">
        <ele>231.195</ele>
        <time>2018-12-29T02:17:57Z</time>
      </trkpt>
      <trkpt lat="37.719410" lon="-121.694390">
        <ele>219.499</ele>
        <time>2018-12-29T02:18:17Z</time>
      </trkpt>
      <trkpt lat="37.719180" lon="-121.695520">
        <ele>210.512</ele>
        <time>2018-12-29T02:18:37Z</time>
      </trkpt>
      <trkpt lat="37.719040" lon="-121.696260">
        <ele>197.033</ele>
        <time>2018-12-29T02:18:57Z</time>
      </trkpt>
      <trkpt lat="37.718930" lon="-121.696790">
        <ele>195.423</ele>
        <time>2018-12-29T02:19:17Z</time>
      </trkpt>
      <trkpt lat="37.718370" lon="-121.699550">
        <ele>190.915</ele>
        <time>2018-12-29T02:19:37Z</time>
      </trkpt>
      <trkpt lat="37.718140" lon="-121.700680">
        <ele>183.508</ele>
        <time>2018-12-29T02:19:57Z</time>
      </trkpt>
      <trkpt lat="37.718050" lon="-121.701120">
        <ele>178.076</ele>
        <time>2018-12-29T02:20:17Z</time>
      </trkpt>
      <trkpt lat="37.717960" lon="-121.701560">
        <ele>180.184</ele>
        <time>2018-12-29T02:20:37Z</time>
      </trkpt>
      <trkpt lat="37.717940" lon="-121.701690">
        <ele>179.919</ele>
        <time>2018-12-29T02:20:57Z</time>
      </trkpt>
      <trkpt lat="37.717910" lon="-121.701820">
        <ele>179.978</ele>
        <time>2018-12-29T02:21:17Z</time>
      </trkpt>
      <trkpt lat="37.717850" lon="-121.702120">
        <ele>179.592</ele>
        <time>2018-12-29T02:21:37Z</time>
      </trkpt>
      <trkpt lat="37.717740" lon="-121.702640">
        <ele>176.855</ele>
        <time>2018-12-29T02:21:57Z</time>
      </trkpt>
      <trkpt lat="37.717630" lon="-121.703130">
        <ele>176.179</ele>
        <time>2018-12-29T02:22:17Z</time>
      </trkpt>
      <trkpt lat="37.717510" lon="-121.703600">
        <ele>175.382</ele>
        <time>2018-12-29T02:22:37Z</time>
      </trkpt>
      <trkpt lat="37.717430" lon="-121.703930">
        <ele>174.535</ele>
        <time>2018-12-29T02:22:57Z</time>
      </trkpt>
      <trkpt lat="37.717340" lon="-121.704240">
        <ele>174.986</ele>
        <time>2018-12-29T02:23:17Z</time>
      </trkpt>
      <trkpt lat="37.717290" lon="-121.704410">
        <ele>175.014</ele>
        <time>2018-12-29T02:23:37Z</time>
      </trkpt>
      <trkpt lat="37.717180" lon="-121.704740">
        <ele>173.908</ele>
        <time>2018-12-29T02:23:57Z</time>
      </trkpt>
      <trkpt lat="37.717040" lon="-121.705170">
        <ele>174.376</ele>
        <time>2018-12-29T02:24:17Z</time>
      </trkpt>
      <trkpt lat="37.716880" lon="-121.705620">
        <ele>173.054</ele>
        <time>2018-12-29T02:24:37Z</time>
      </trkpt>
      <trkpt lat="37.716800" lon="-121.705810">
        <ele>173.239</ele>
        <time>2018-12-29T02:24:57Z</time>
      </trkpt>
      <trkpt lat="37.716670" lon="-121.706140">
        <ele>172.978</ele>
        <time>2018-12-29T02:25:17Z</time>
      </trkpt>
      <trkpt lat="37.716370" lon="-121.706870">
        <ele>172.022</ele>
        <time>2018-12-29T02:25:37Z</time>
      </trkpt>
      <trkpt lat="37.715850" lon="-121.708040">
        <ele>171.135</ele>
        <time>2018-12-29T02:25:57Z</time>
      </trkpt>
      <trkpt lat="37.715660" lon="-121.708500">
        <ele>170.759</ele>
        <time>2018-12-29T02:26:17Z</time>
      </trkpt>
      <trkpt lat="37.715430" lon="-121.709020">
        <ele>170.382</ele>
        <time>2018-12-29T02:26:37Z</time>
      </trkpt>
      <trkpt lat="37.715230" lon="-121.709500">
        <ele>170.094</ele>
        <time>2018-12-29T02:26:57Z</time>
      </trkpt>
      <trkpt lat="37.714530" lon="-121.711120">
        <ele>168.957</ele>
        <time>2018-12-29T02:27:17Z</time>
      </trkpt>
      <trkpt lat="37.714010" lon="-121.712340">
        <ele>168.222</ele>
        <time>2018-12-29T02:27:37Z</time>
      </trkpt>
      <trkpt lat="37.713340" lon="-121.713920">
        <ele>167.108</ele>
        <time>2018-12-29T02:27:57Z</time>
      </trkpt>
      <trkpt lat="37.713110" lon="-121.714460">
        <ele>166.722</ele>
        <time>2018-12-29T02:28:17Z</time>
      </trkpt>
      <trkpt lat="37.712820" lon="-121.715150">
        <ele>166.210</ele>
        <time>2018-12-29T02:28:37Z</time>
      </trkpt>
      <trkpt lat="37.712530" lon="-121.715830">
        <ele>165.955</ele>
        <time>2018-12-29T02:28:57Z</time>
      </trkpt>
      <trkpt lat="37.712500" lon="-121.715910">
        <ele>165.844</ele>
        <time>2018-12-29T02:29:17Z</time>
      </trkpt>
      <trkpt lat="37.712070" lon="-121.716920">
        <ele>165.258</ele>
        <time>2018-12-29T02:29:37Z</time>
      </trkpt>
      <trkpt lat="37.711590" lon="-121.718070">
        <ele>164.551</ele>
        <time>2018-12-29T02:29:57Z</time>
      </trkpt>
      <trkpt lat="37.711530" lon="-121.718220">
        <ele>164.665</ele>
        <time>2018-12-29T02:30:17Z</time>
      </trkpt>
      <trkpt lat="37.711190" lon="-121.719000">
        <ele>164.518</ele>
        <time>2018-12-29T02:30:37Z</time>
      </trkpt>
      <trkpt lat="37.710810" lon="-121.719900">
        <ele>164.396</ele>
        <time>2018-12-29T02:30:57Z</time>
      </trkpt>
      <trkpt lat="37.710220" lon="-121.721310">
        <ele>164.031</ele>
        <time>2018-12-29T02:31:17Z</time>
      </trkpt>
      <trkpt lat="37.709880" lon="-121.722100">
        <ele>163.824</ele>
        <time>2018-12-29T02:31:37Z</time>
      </trkpt>
      <trkpt lat="37.709380" lon="-121.723280">
        <ele>163.408</ele>
        <time>2018-12-29T02:31:57Z</time>
      </trkpt>
      <trkpt lat="37.708810" lon="-121.724630">
        <ele>162.912</ele>
        <time>2018-12-29T02:32:17Z</time>
      </trkpt>
      <trkpt lat="37.708090" lon="-121.726310">
        <ele>162.410</ele>
        <time>2018-12-29T02:32:37Z</time>
      </trkpt>
      <trkpt lat="37.707130" lon="-121.728610">
        <ele>161.675</ele>
        <time>2018-12-29T02:32:57Z</time>
      </trkpt>
      <trkpt lat="37.706900" lon="-121.729210">
        <ele>161.444</ele>
        <time>2018-12-29T02:33:17Z</time>
      </trkpt>
      <trkpt lat="37.706600" lon="-121.729900">
        <ele>161.278</ele>
        <time>2018-12-29T02:33:37Z</time>
      </trkpt>
      <trkpt lat="37.705980" lon="-121.731370">
        <ele>160.921</ele>
        <time>2018-12-29T02:33:57Z</time>
      </trkpt>
      <trkpt lat="37.705610" lon="-121.732230">
        <ele>160.315</ele>
        <time>2018-12-29T02:34:17Z</time>
      </trkpt>
      <trkpt lat="37.705140" lon="-121.733320">
        <ele>160.368</ele>
        <time>2018-12-29T02:34:37Z</time>
      </trkpt>
      <trkpt lat="37.704320" lon="-121.735260">
        <ele>160.067</ele>
        <time>2018-12-29T02:34:57Z</time>
      </trkpt>
      <trkpt lat="37.704090" lon="-121.735800">
        <ele>159.881</ele>
        <time>2018-12-29T02:35:17Z</time>
      </trkpt>
      <trkpt lat="37.704050" lon="-121.735900">
        <ele>159.919</ele>
        <time>2018-12-29T02:35:37Z</time>
      </trkpt>
      <trkpt lat="37.703780" lon="-121.736560">
        <ele>159.808</ele>
        <time>2018-12-29T02:35:57Z</time>
      </trkpt>
      <trkpt lat="37.703690" lon="-121.736790">
        <ele>159.769</ele>
        <time>2018-12-29T02:36:17Z</time>
      </trkpt>
      <trkpt lat="37.703640" lon="-121.736930">
        <ele>159.767</ele>
        <time>2018-12-29T02:36:37Z</time>
      </trkpt>
      <trkpt lat="37.703540" lon="-121.737200">
        <ele>159.772</ele>
        <time>2018-12-29T02:36:57Z</time>
      </trkpt>
      <trkpt lat="37.703410" lon="-121.737570">
        <ele>159.791</ele>
        <time>2018-12-29T02:37:17Z</time>
      </trkpt>
      <trkpt lat="37.703290" lon="-121.737940">
        <ele>159.885</ele>
        <time>2018-12-29T02:37:37Z</time>
      </trkpt>
      <trkpt lat="37.703120" lon="-121.738510">
        <ele>159.748</ele>
        <time>2018-12-29T02:37:57Z</time>
      </trkpt>
      <trkpt lat="37.703020" lon="-121.738860">
        <ele>160.222</ele>
        <time>2018-12-29T02:38:17Z</time>
      </trkpt>
      <trkpt lat="37.702940" lon="-121.739190">
        <ele>160.215</ele>
        <time>2018-12-29T02:38:37Z</time>
      </trkpt>
      <trkpt lat="37.702860" lon="-121.739530">
        <ele>160.474</ele>
        <time>2018-12-29T02:38:57Z</time>
      </trkpt>
      <trkpt lat="37.702760" lon="-121.740020">
        <ele>160.956</ele>
        <time>2018-12-29T02:39:17Z</time>
      </trkpt>
      <trkpt lat="37.702710" lon="-121.740330">
        <ele>161.021</ele>
        <time>2018-12-29T02:39:37Z</time>
      </trkpt>
      <trkpt lat="37.702640" lon="-121.740750">
        <ele>161.308</ele>
        <time>2018-12-29T02:39:57Z</time>
      </trkpt>
      <trkpt lat="37.702590" lon="-121.741120">
        <ele>161.580</ele>
        <time>2018-12-29T02:40:17Z</time>
      </trkpt>
      <trkpt lat="37.702520" lon="-121.741850">
        <ele>161.778</ele>
        <time>2018-12-29T02:40:37Z</time>
      </trkpt>
      <trkpt lat="37.702490" lon="-121.742170">
        <ele>161.873</ele>
        <time>2018-12-29T02:40:57Z</time>
      </trkpt>
      <trkpt lat="37.702470" lon="-121.742500">
        <ele>162.072</ele>
        <time>2018-12-29T02:41:17Z</time>
      </trkpt>
      <trkpt lat="37.702450" lon="-121.742870">
        <ele>161.666</ele>
        <time>2018-12-29T02:41:37Z</time>
      </trkpt>
      <trkpt lat="37.702440" lon="-121.743130">
        <ele>161.459</ele>
        <time>2018-12-29T02:41:57Z</time>
      </trkpt>
      <trkpt lat="37.702470" lon="-121.744050">
        <ele>160.883</ele>
        <time>2018-12-29T02:42:17Z</time>
      </trkpt>
      <trkpt lat="37.702490" lon="-121.744410">
        <ele>160.236</ele>
        <time>2018-12-29T02:42:37Z</time>
      </trkpt>
      <trkpt lat="37.702570" lon="-121.746350">
        <ele>157.547</ele>
        <time>2018-12-29T02:42:57Z</time>
      </trkpt>
      <trkpt lat="37.702580" lon="-121.746460">
        <ele>157.529</ele>
        <time>2018-12-29T02:43:17Z</time>
      </trkpt>
      <trkpt lat="37.702720" lon="-121.749910">
        <ele>155.721</ele>
        <time>2018-12-29T02:43:37Z</time>
      </trkpt>
      <trkpt lat="37.702810" lon="-121.751940">
        <ele>154.808</ele>
        <time>2018-12-29T02:43:57Z</time>
      </trkpt>
      <trkpt lat="37.702960" lon="-121.755570">
        <ele>153.787</ele>
        <time>2018-12-29T02:44:17Z</time>
      </trkpt>
      <trkpt lat="37.702970" lon="-121.755890">
        <ele>152.595</ele>
        <time>2018-12-29T02:44:37Z</time>
      </trkpt>
      <trkpt lat="37.703020" lon="-121.756910">
        <ele>150.260</ele>
        <time>2018-12-29T02:44:57Z</time>
      </trkpt>
      <trkpt lat="37.703050" lon="-121.757670">
        <ele>149.869</ele>
        <time>2018-12-29T02:45:17Z</time>
      </trkpt>
      <trkpt lat="37.703070" lon="-121.758330">
        <ele>149.773</ele>
        <time>2018-12-29T02:45:37Z</time>
      </trkpt>
      <trkpt lat="37.703070" lon="-121.758850">
        <ele>149.266</ele>
        <time>2018-12-29T02:45:57Z</time>
      </trkpt>
      <trkpt lat="37.703060" lon="-121.759300">
        <ele>145.260</ele>
        <time>2018-12-29T02:46:17Z</time>
      </trkpt>
      <trkpt lat="37.703050" lon="-121.759720">
        <ele>149.213</ele>
        <time>2018-12-29T02:46:37Z</time>
      </trkpt>
      <trkpt lat="37.703040" lon="-121.760160">
        <ele>149.158</ele>
        <time>2018-12-29T02:46:57Z</time>
      </trkpt>
      <trkpt lat="37.703000" lon="-121.760830">
        <ele>149.052</ele>
        <time>2018-12-29T02:47:17Z</time>
      </trkpt>
      <trkpt lat="37.702970" lon="-121.761250">
        <ele>149.017</ele>
        <time>2018-12-29T02:47:37Z</time>
      </trkpt>
      <trkpt lat="37.702940" lon="-121.761610">
        <ele>148.908</ele>
        <time>2018-12-29T02:47:57Z</time>
      </trkpt>
      <trkpt lat="37.702890" lon="-121.762110">
        <ele>148.138</ele>
        <time>2018-12-29T02:48:17Z</time>
      </trkpt>
      <trkpt lat="37.702840" lon="-121.762540">
        <ele>147.466</ele>
        <time>2018-12-29T02:48:37Z</time>
      </trkpt>
      <trkpt lat="37.702790" lon="-121.762910">
        <ele>146.541</ele>
        <time>2018-12-29T02:48:57Z</time>
      </trkpt>
      <trkpt lat="37.702730" lon="-121.763390">
        <ele>146.620</ele>
        <time>2018-12-29T02:49:17Z</time>
      </trkpt>
      <trkpt lat="37.702660" lon="-121.763860">
        <ele>146.784</ele>
        <time>2018-12-29T02:49:37Z</time>
      </trkpt>
      <trkpt lat="37.702580" lon="-121.764330">
        <ele>146.187</ele>
        <time>2018-12-29T02:49:57Z</time>
      </trkpt>
      <trkpt lat="37.702510" lon="-121.764780">
        <ele>145.241</ele>
        <time>2018-12-29T02:50:17Z</time>
      </trkpt>
      <trkpt lat="37.702190" lon="-121.766670">
        <ele>145.754</ele>
        <time>2018-12-29T02:50:37Z</time>
      </trkpt>
      <trkpt lat="37.701840" lon="-121.768820">
        <ele>145.084</ele>
        <time>2018-12-29T02:50:57Z</time>
      </trkpt>
      <trkpt lat="37.701550" lon="-121.770450">
        <ele>146.007</ele>
        <time>2018-12-29T02:51:17Z</time>
      </trkpt>
      <trkpt lat="37.701340" lon="-121.771710">
        <ele>145.817</ele>
        <time>2018-12-29T02:51:37Z</time>
      </trkpt>
      <trkpt lat="37.701030" lon="-121.773530">
        <ele>145.108</ele>
        <time>2018-12-29T02:51:57Z</time>
      </trkpt>
      <trkpt lat="37.700990" lon="-121.773810">
        <ele>141.761</ele>
        <time>2018-12-29T02:52:17Z</time>
      </trkpt>
      <trkpt lat="37.700940" lon="-121.774080">
        <ele>146.069</ele>
        <time>2018-12-29T02:52:37Z</time>
      </trkpt>
      <trkpt lat="37.700840" lon="-121.774710">
        <ele>146.914</ele>
        <time>2018-12-29T02:52:57Z</time>
      </trkpt>
      <trkpt lat="37.700680" lon="-121.775760">
        <ele>147.833</ele>
        <time>2018-12-29T02:53:17Z</time>
      </trkpt>
      <trkpt lat="37.700610" lon="-121.776350">
        <ele>147.367</ele>
        <time>2018-12-29T02:53:37Z</time>
      </trkpt>
      <trkpt lat="37.700570" lon="-121.776660">
        <ele>147.110</ele>
        <time>2018-12-29T02:53:57Z</time>
      </trkpt>
      <trkpt lat="37.700510" lon="-121.777280">
        <ele>147.894</ele>
        <time>2018-12-29T02:54:17Z</time>
      </trkpt>
      <trkpt lat="37.700390" lon="-121.778610">
        <ele>144.667</ele>
        <time>2018-12-29T02:54:37Z</time>
      </trkpt>
      <trkpt lat="37.700350" lon="-121.779100">
        <ele>143.778</ele>
        <time>2018-12-29T02:54:57Z</time>
      </trkpt>
      <trkpt lat="37.700330" lon="-121.779340">
        <ele>143.533</ele>
        <time>2018-12-29T02:55:17Z</time>
      </trkpt>
      <trkpt lat="37.700330" lon="-121.779460">
        <ele>143.726</ele>
        <time>2018-12-29T02:55:37Z</time>
      </trkpt>
      <trkpt lat="37.700320" lon="-121.779520">
        <ele>143.808</ele>
        <time>2018-12-29T02:55:57Z</time>
      </trkpt>
      <trkpt lat="37.700290" lon="-121.779950">
        <ele>144.240</ele>
        <time>2018-12-29T02:56:17Z</time>
      </trkpt>
      <trkpt lat="37.700110" lon="-121.782050">
        <ele>139.718</ele>
        <time>2018-12-29T02:56:37Z</time>
      </trkpt>
      <trkpt lat="37.700070" lon="-121.782480">
        <ele>139.583</ele>
        <time>2018-12-29T02:56:57Z</time>
      </trkpt>
      <trkpt lat="37.699880" lon="-121.784660">
        <ele>128.942</ele>
        <time>2018-12-29T02:57:17Z</time>
      </trkpt>
      <trkpt lat="37.699790" lon="-121.785650">
        <ele>134.676</ele>
        <time>2018-12-29T02:57:37Z</time>
      </trkpt>
      <trkpt lat="37.699730" lon="-121.786320">
        <ele>134.299</ele>
        <time>2018-12-29T02:57:57Z</time>
      </trkpt>
      <trkpt lat="37.699700" lon="-121.786800">
        <ele>135.643</ele>
        <time>2018-12-29T02:58:17Z</time>
      </trkpt>
      <trkpt lat="37.699690" lon="-121.787010">
        <ele>134.896</ele>
        <time>2018-12-29T02:58:37Z</time>
      </trkpt>
      <trkpt lat="37.699690" lon="-121.787620">
        <ele>134.096</ele>
        <time>2018-12-29T02:58:57Z</time>
      </trkpt>
      <trkpt lat="37.699700" lon="-121.787820">
        <ele>134.031</ele>
        <time>2018-12-29T02:59:17Z</time>
      </trkpt>
      <trkpt lat="37.699710" lon="-121.788110">
        <ele>133.824</ele>
        <time>2018-12-29T02:59:37Z</time>
      </trkpt>
      <trkpt lat="37.699730" lon="-121.788450">
        <ele>133.608</ele>
        <time>2018-12-29T02:59:57Z</time>
      </trkpt>
      <trkpt lat="37.699760" lon="-121.788720">
        <ele>133.412</ele>
        <time>2018-12-29T03:00:17Z</time>
      </trkpt>
      <trkpt lat="37.699790" lon="-121.788950">
        <ele>133.430</ele>
        <time>2018-12-29T03:00:37Z</time>
      </trkpt>
      <trkpt lat="37.699830" lon="-121.789250">
        <ele>133.565</ele>
        <time>2018-12-29T03:00:57Z</time>
      </trkpt>
      <trkpt lat="37.699860" lon="-121.789450">
        <ele>133.554</ele>
        <time>2018-12-29T03:01:17Z</time>
      </trkpt>
      <trkpt lat="37.699900" lon="-121.789700">
        <ele>133.448</ele>
        <time>2018-12-29T03:01:37Z</time>
      </trkpt>
      <trkpt lat="37.699910" lon="-121.789750">
        <ele>133.461</ele>
        <time>2018-12-29T03:01:57Z</time>
      </trkpt>
      <trkpt lat="37.700060" lon="-121.790410">
        <ele>133.355</ele>
        <time>2018-12-29T03:02:17Z</time>
      </trkpt>
      <trkpt lat="37.700140" lon="-121.790810">
        <ele>133.378</ele>
        <time>2018-12-29T03:02:37Z</time>
      </trkpt>
      <trkpt lat="37.700600" lon="-121.792870">
        <ele>131.245</ele>
        <time>2018-12-29T03:02:57Z</time>
      </trkpt>
      <trkpt lat="37.700700" lon="-121.793340">
        <ele>131.247</ele>
        <time>2018-12-29T03:03:17Z</time>
      </trkpt>
      <trkpt lat="37.700730" lon="-121.793510">
        <ele>130.611</ele>
        <time>2018-12-29T03:03:37Z</time>
      </trkpt>
      <trkpt lat="37.700780" lon="-121.793800">
        <ele>129.708</ele>
        <time>2018-12-29T03:03:57Z</time>
      </trkpt>
      <trkpt lat="37.700830" lon="-121.794140">
        <ele>129.297</ele>
        <time>2018-12-29T03:04:17Z</time>
      </trkpt>
      <trkpt lat="37.700860" lon="-121.794510">
        <ele>129.165</ele>
        <time>2018-12-29T03:04:37Z</time>
      </trkpt>
      <trkpt lat="37.700880" lon="-121.794820">
        <ele>128.590</ele>
        <time>2018-12-29T03:04:57Z</time>
      </trkpt>
      <trkpt lat="37.700900" lon="-121.795510">
        <ele>127.359</ele>
        <time>2018-12-29T03:05:17Z</time>
      </trkpt>
      <trkpt lat="37.700910" lon="-121.797180">
        <ele>125.073</ele>
        <time>2018-12-29T03:05:37Z</time>
      </trkpt>
      <trkpt lat="37.700920" lon="-121.798580">
        <ele>127.336</ele>
        <time>2018-12-29T03:05:57Z</time>
      </trkpt>
      <trkpt lat="37.700960" lon="-121.801800">
        <ele>126.410</ele>
        <time>2018-12-29T03:06:17Z</time>
      </trkpt>
      <trkpt lat="37.700980" lon="-121.803320">
        <ele>127.773</ele>
        <time>2018-12-29T03:06:37Z</time>
      </trkpt>
      <trkpt lat="37.700990" lon="-121.804290">
        <ele>128.045</ele>
        <time>2018-12-29T03:06:57Z</time>
      </trkpt>
      <trkpt lat="37.701000" lon="-121.806020">
        <ele>128.247</ele>
        <time>2018-12-29T03:07:17Z</time>
      </trkpt>
      <trkpt lat="37.701020" lon="-121.807960">
        <ele>128.111</ele>
        <time>2018-12-29T03:07:37Z</time>
      </trkpt>
      <trkpt lat="37.701040" lon="-121.809460">
        <ele>128.908</ele>
        <time>2018-12-29T03:07:57Z</time>
      </trkpt>
      <trkpt lat="37.701050" lon="-121.809640">
        <ele>129.097</ele>
        <time>2018-12-29T03:08:17Z</time>
      </trkpt>
      <trkpt lat="37.701080" lon="-121.813170">
        <ele>128.765</ele>
        <time>2018-12-29T03:08:37Z</time>
      </trkpt>
      <trkpt lat="37.701140" lon="-121.819470">
        <ele>122.190</ele>
        <time>2018-12-29T03:08:57Z</time>
      </trkpt>
      <trkpt lat="37.701130" lon="-121.820510">
        <ele>122.929</ele>
        <time>2018-12-29T03:09:17Z</time>
      </trkpt>
      <trkpt lat="37.701140" lon="-121.821700">
        <ele>123.433</ele>
        <time>2018-12-29T03:09:37Z</time>
      </trkpt>
      <trkpt lat="37.701150" lon="-121.822910">
        <ele>123.916</ele>
        <time>2018-12-29T03:09:57Z</time>
      </trkpt>
      <trkpt lat="37.701160" lon="-121.823430">
        <ele>123.970</ele>
        <time>2018-12-29T03:10:17Z</time>
      </trkpt>
      <trkpt lat="37.701180" lon="-121.824160">
        <ele>123.443</ele>
        <time>2018-12-29T03:10:37Z</time>
      </trkpt>
      <trkpt lat="37.701180" lon="-121.825120">
        <ele>122.775</ele>
        <time>2018-12-29T03:10:57Z</time>
      </trkpt>
      <trkpt lat="37.701200" lon="-121.826430">
        <ele>123.028</ele>
        <time>2018-12-29T03:11:17Z</time>
      </trkpt>
      <trkpt lat="37.701210" lon="-121.828580">
        <ele>121.920</ele>
        <time>2018-12-29T03:11:37Z</time>
      </trkpt>
      <trkpt lat="37.701230" lon="-121.830010">
        <ele>119.108</ele>
        <time>2018-12-29T03:11:57Z</time>
      </trkpt>
      <trkpt lat="37.701250" lon="-121.833130">
        <ele>117.740</ele>
        <time>2018-12-29T03:12:17Z</time>
      </trkpt>
      <trkpt lat="37.701270" lon="-121.835000">
        <ele>115.968</ele>
        <time>2018-12-29T03:12:37Z</time>
      </trkpt>
      <trkpt lat="37.701280" lon="-121.836330">
        <ele>114.073</ele>
        <time>2018-12-29T03:12:57Z</time>
      </trkpt>
      <trkpt lat="37.701300" lon="-121.838480">
        <ele>112.532</ele>
        <time>2018-12-29T03:13:17Z</time>
      </trkpt>
      <trkpt lat="37.701310" lon="-121.839880">
        <ele>111.746</ele>
        <time>2018-12-29T03:13:37Z</time>
      </trkpt>
      <trkpt lat="37.701320" lon="-121.840640">
        <ele>111.339</ele>
        <time>2018-12-29T03:13:57Z</time>
      </trkpt>
      <trkpt lat="37.701330" lon="-121.841660">
        <ele>110.933</ele>
        <time>2018-12-29T03:14:17Z</time>
      </trkpt>
      <trkpt lat="37.701350" lon="-121.844140">
        <ele>109.826</ele>
        <time>2018-12-29T03:14:37Z</time>
      </trkpt>
      <trkpt lat="37.701360" lon="-121.845320">
        <ele>109.342</ele>
        <time>2018-12-29T03:14:57Z</time>
      </trkpt>
      <trkpt lat="37.701370" lon="-121.848280">
        <ele>108.722</ele>
        <time>2018-12-29T03:15:17Z</time>
      </trkpt>
      <trkpt lat="37.701380" lon="-121.849080">
        <ele>108.514</ele>
        <time>2018-12-29T03:15:37Z</time>
      </trkpt>
      <trkpt lat="37.701390" lon="-121.850490">
        <ele>108.408</ele>
        <time>2018-12-29T03:15:57Z</time>
      </trkpt>
      <trkpt lat="37.701390" lon="-121.851260">
        <ele>108.247</ele>
        <time>2018-12-29T03:16:17Z</time>
      </trkpt>
      <trkpt lat="37.701450" lon="-121.856100">
        <ele>106.415</ele>
        <time>2018-12-29T03:16:37Z</time>
      </trkpt>
      <trkpt lat="37.701470" lon="-121.858090">
        <ele>106.350</ele>
        <time>2018-12-29T03:16:57Z</time>
      </trkpt>
      <trkpt lat="37.701500" lon="-121.861370">
        <ele>106.389</ele>
        <time>2018-12-29T03:17:17Z</time>
      </trkpt>
      <trkpt lat="37.701530" lon="-121.864130">
        <ele>106.213</ele>
        <time>2018-12-29T03:17:37Z</time>
      </trkpt>
      <trkpt lat="37.701530" lon="-121.864910">
        <ele>106.386</ele>
        <time>2018-12-29T03:17:57Z</time>
      </trkpt>
      <trkpt lat="37.701550" lon="-121.866800">
        <ele>106.260</ele>
        <time>2018-12-29T03:18:17Z</time>
      </trkpt>
      <trkpt lat="37.701550" lon="-121.866830">
        <ele>106.283</ele>
        <time>2018-12-29T03:18:37Z</time>
      </trkpt>
      <trkpt lat="37.701560" lon="-121.867580">
        <ele>106.265</ele>
        <time>2018-12-29T03:18:57Z</time>
      </trkpt>
      <trkpt lat="37.701590" lon="-121.870530">
        <ele>106.168</ele>
        <time>2018-12-29T03:19:17Z</time>
      </trkpt>
      <trkpt lat="37.701600" lon="-121.871840">
        <ele>106.314</ele>
        <time>2018-12-29T03:19:37Z</time>
      </trkpt>
      <trkpt lat="37.701630" lon="-121.874880">
        <ele>106.708</ele>
        <time>2018-12-29T03:19:57Z</time>
      </trkpt>
      <trkpt lat="37.701630" lon="-121.875260">
        <ele>106.899</ele>
        <time>2018-12-29T03:20:17Z</time>
      </trkpt>
      <trkpt lat="37.701640" lon="-121.876250">
        <ele>107.367</ele>
        <time>2018-12-29T03:20:37Z</time>
      </trkpt>
      <trkpt lat="37.701650" lon="-121.877260">
        <ele>107.242</ele>
        <time>2018-12-29T03:20:57Z</time>
      </trkpt>
      <trkpt lat="37.701650" lon="-121.877610">
        <ele>107.411</ele>
        <time>2018-12-29T03:21:17Z</time>
      </trkpt>
      <trkpt lat="37.701650" lon="-121.877960">
        <ele>107.685</ele>
        <time>2018-12-29T03:21:37Z</time>
      </trkpt>
      <trkpt lat="37.701660" lon="-121.879000">
        <ele>104.468</ele>
        <time>2018-12-29T03:21:57Z</time>
      </trkpt>
      <trkpt lat="37.701670" lon="-121.879260">
        <ele>107.852</ele>
        <time>2018-12-29T03:22:17Z</time>
      </trkpt>
      <trkpt lat="37.701680" lon="-121.880460">
        <ele>107.655</ele>
        <time>2018-12-29T03:22:37Z</time>
      </trkpt>
      <trkpt lat="37.701700" lon="-121.881870">
        <ele>106.966</ele>
        <time>2018-12-29T03:22:57Z</time>
      </trkpt>
      <trkpt lat="37.701710" lon="-121.882600">
        <ele>106.829</ele>
        <time>2018-12-29T03:23:17Z</time>
      </trkpt>
      <trkpt lat="37.701720" lon="-121.883330">
        <ele>106.721</ele>
        <time>2018-12-29T03:23:37Z</time>
      </trkpt>
      <trkpt lat="37.701720" lon="-121.883510">
        <ele>106.708</ele>
        <time>2018-12-29T03:23:57Z</time>
      </trkpt>
      <trkpt lat="37.701730" lon="-121.885210">
        <ele>106.049</ele>
        <time>2018-12-29T03:24:17Z</time>
      </trkpt>
      <trkpt lat="37.701750" lon="-121.886330">
        <ele>105.587</ele>
        <time>2018-12-29T03:24:37Z</time>
      </trkpt>
      <trkpt lat="37.701770" lon="-121.887810">
        <ele>105.092</ele>
        <time>2018-12-29T03:24:57Z</time>
      </trkpt>
      <trkpt lat="37.701770" lon="-121.889330">
        <ele>104.891</ele>
        <time>2018-12-29T03:25:17Z</time>
      </trkpt>
      <trkpt lat="37.701770" lon="-121.889780">
        <ele>104.725</ele>
        <time>2018-12-29T03:25:37Z</time>
      </trkpt>
      <trkpt lat="37.701780" lon="-121.890000">
        <ele>104.548</ele>
        <time>2018-12-29T03:25:57Z</time>
      </trkpt>
      <trkpt lat="37.701790" lon="-121.890880">
        <ele>104.032</ele>
        <time>2018-12-29T03:26:17Z</time>
      </trkpt>
      <trkpt lat="37.701790" lon="-121.891640">
        <ele>103.675</ele>
        <time>2018-12-29T03:26:37Z</time>
      </trkpt>
      <trkpt lat="37.701790" lon="-121.892450">
        <ele>103.297</ele>
        <time>2018-12-29T03:26:57Z</time>
      </trkpt>
      <trkpt lat="37.701800" lon="-121.892600">
        <ele>103.023</ele>
        <time>2018-12-29T03:27:17Z</time>
      </trkpt>
      <trkpt lat="37.701800" lon="-121.893530">
        <ele>103.425</ele>
        <time>2018-12-29T03:27:37Z</time>
      </trkpt>
      <trkpt lat="37.701810" lon="-121.894120">
        <ele>104.408</ele>
        <time>2018-12-29T03:27:57Z</time>
      </trkpt>
      <trkpt lat="37.701810" lon="-121.894660">
        <ele>105.732</ele>
        <time>2018-12-29T03:28:17Z</time>
      </trkpt>
      <trkpt lat="37.701830" lon="-121.895510">
        <ele>106.860</ele>
        <time>2018-12-29T03:28:37Z</time>
      </trkpt>
      <trkpt lat="37.701840" lon="-121.896050">
        <ele>107.245</ele>
        <time>2018-12-29T03:28:57Z</time>
      </trkpt>
      <trkpt lat="37.701850" lon="-121.896690">
        <ele>107.564</ele>
        <time>2018-12-29T03:29:17Z</time>
      </trkpt>
      <trkpt lat="37.701870" lon="-121.897180">
        <ele>107.578</ele>
        <time>2018-12-29T03:29:37Z</time>
      </trkpt>
      <trkpt lat="37.701870" lon="-121.897290">
        <ele>107.611</ele>
        <time>2018-12-29T03:29:57Z</time>
      </trkpt>
      <trkpt lat="37.701880" lon="-121.898020">
        <ele>106.355</ele>
        <time>2018-12-29T03:30:17Z</time>
      </trkpt>
      <trkpt lat="37.701880" lon="-121.898250">
        <ele>103.418</ele>
        <time>2018-12-29T03:30:37Z</time>
      </trkpt>
      <trkpt lat="37.701880" lon="-121.902220">
        <ele>103.285</ele>
        <time>2018-12-29T03:30:57Z</time>
      </trkpt>
      <trkpt lat="37.701880" lon="-121.902790">
        <ele>102.289</ele>
        <time>2018-12-29T03:31:17Z</time>
      </trkpt>
      <trkpt lat="37.701880" lon="-121.903710">
        <ele>101.017</ele>
        <time>2018-12-29T03:31:37Z</time>
      </trkpt>
      <trkpt lat="37.701880" lon="-121.904730">
        <ele>100.708</ele>
        <time>2018-12-29T03:31:57Z</time>
      </trkpt>
      <trkpt lat="37.701910" lon="-121.907050">
        <ele>100.691</ele>
        <time>2018-12-29T03:32:17Z</time>
      </trkpt>
      <trkpt lat="37.701920" lon="-121.907270">
        <ele>100.739</ele>
        <time>2018-12-29T03:32:37Z</time>
      </trkpt>
      <trkpt lat="37.701920" lon="-121.907880">
        <ele>100.624</ele>
        <time>2018-12-29T03:32:57Z</time>
      </trkpt>
      <trkpt lat="37.701940" lon="-121.908920">
        <ele>100.713</ele>
        <time>2018-12-29T03:33:17Z</time>
      </trkpt>
      <trkpt lat="37.701950" lon="-121.910070">
        <ele>100.767</ele>
        <time>2018-12-29T03:33:37Z</time>
      </trkpt>
      <trkpt lat="37.701990" lon="-121.913220">
        <ele>101.550</ele>
        <time>2018-12-29T03:33:57Z</time>
      </trkpt>
      <trkpt lat="37.702010" lon="-121.915050">
        <ele>101.954</ele>
        <time>2018-12-29T03:34:17Z</time>
      </trkpt>
      <trkpt lat="37.702020" lon="-121.916060">
        <ele>102.337</ele>
        <time>2018-12-29T03:34:37Z</time>
      </trkpt>
      <trkpt lat="37.702030" lon="-121.916510">
        <ele>102.748</ele>
        <time>2018-12-29T03:34:57Z</time>
      </trkpt>
      <trkpt lat="37.702030" lon="-121.916740">
        <ele>102.961</ele>
        <time>2018-12-29T03:35:17Z</time>
      </trkpt>
      <trkpt lat="37.702031" lon="-121.916744">
        <ele>103.017</ele>
        <time>2018-12-29T03:35:37Z</time>
      </trkpt>
      <trkpt lat="37.702000" lon="-121.917000">
        <ele>103.108</ele>
        <time>2018-12-29T03:35:57Z</time>
      </trkpt>
      <trkpt lat="37.701990" lon="-121.917220">
        <ele>103.217</ele>
        <time>2018-12-29T03:36:17Z</time>
      </trkpt>
      <trkpt lat="37.701990" lon="-121.917390">
        <ele>103.295</ele>
        <time>2018-12-29T03:36:37Z</time>
      </trkpt>
      <trkpt lat="37.701980" lon="-121.917610">
        <ele>103.430</ele>
        <time>2018-12-29T03:36:57Z</time>
      </trkpt>
      <trkpt lat="37.701970" lon="-121.917840">
        <ele>103.319</ele>
        <time>2018-12-29T03:37:17Z</time>
      </trkpt>
      <trkpt lat="37.701940" lon="-121.918190">
        <ele>103.473</ele>
        <time>2018-12-29T03:37:37Z</time>
      </trkpt>
      <trkpt lat="37.701920" lon="-121.918380">
        <ele>103.426</ele>
        <time>2018-12-29T03:37:57Z</time>
      </trkpt>
      <trkpt lat="37.701910" lon="-121.918530">
        <ele>103.590</ele>
        <time>2018-12-29T03:38:17Z</time>
      </trkpt>
      <trkpt lat="37.701890" lon="-121.918690">
        <ele>103.443</ele>
        <time>2018-12-29T03:38:37Z</time>
      </trkpt>
      <trkpt lat="37.701870" lon="-121.918880">
        <ele>103.323</ele>
        <time>2018-12-29T03:38:57Z</time>
      </trkpt>
      <trkpt lat="37.701850" lon="-121.919030">
        <ele>103.383</ele>
        <time>2018-12-29T03:39:17Z</time>
      </trkpt>
      <trkpt lat="37.701830" lon="-121.919210">
        <ele>103.311</ele>
        <time>2018-12-29T03:39:37Z</time>
      </trkpt>
      <trkpt lat="37.701800" lon="-121.919370">
        <ele>103.508</ele>
        <time>2018-12-29T03:39:57Z</time>
      </trkpt>
      <trkpt lat="37.701780" lon="-121.919500">
        <ele>103.625</ele>
        <time>2018-12-29T03:40:17Z</time>
      </trkpt>
      <trkpt lat="37.701760" lon="-121.919660">
        <ele>101.773</ele>
        <time>2018-12-29T03:40:37Z</time>
      </trkpt>
      <trkpt lat="37.701730" lon="-121.919860">
        <ele>96.488</ele>
        <time>2018-12-29T03:40:57Z</time>
      </trkpt>
      <trkpt lat="37.701700" lon="-121.920010">
        <ele>97.917</ele>
        <time>2018-12-29T03:41:17Z</time>
      </trkpt>
      <trkpt lat="37.701660" lon="-121.920210">
        <ele>100.761</ele>
        <time>2018-12-29T03:41:37Z</time>
      </trkpt>
      <trkpt lat="37.701610" lon="-121.920430">
        <ele>103.474</ele>
        <time>2018-12-29T03:41:57Z</time>
      </trkpt>
      <trkpt lat="37.701560" lon="-121.920670">
        <ele>103.278</ele>
        <time>2018-12-29T03:42:17Z</time>
      </trkpt>
      <trkpt lat="37.701490" lon="-121.920960">
        <ele>103.061</ele>
        <time>2018-12-29T03:42:37Z</time>
      </trkpt>
      <trkpt lat="37.701350" lon="-121.921610">
        <ele>103.366</ele>
        <time>2018-12-29T03:42:57Z</time>
      </trkpt>
      <trkpt lat="37.701190" lon="-121.922300">
        <ele>102.929</ele>
        <time>2018-12-29T03:43:17Z</time>
      </trkpt>
      <trkpt lat="37.700980" lon="-121.923270">
        <ele>103.221</ele>
        <time>2018-12-29T03:43:37Z</time>
      </trkpt>
      <trkpt lat="37.700910" lon="-121.923600">
        <ele>103.208</ele>
        <time>2018-12-29T03:43:57Z</time>
      </trkpt>
      <trkpt lat="37.700850" lon="-121.923880">
        <ele>103.449</ele>
        <time>2018-12-29T03:44:17Z</time>
      </trkpt>
      <trkpt lat="37.700740" lon="-121.924430">
        <ele>103.387</ele>
        <time>2018-12-29T03:44:37Z</time>
      </trkpt>
      <trkpt lat="37.700630" lon="-121.924960">
        <ele>103.892</ele>
        <time>2018-12-29T03:44:57Z</time>
      </trkpt>
      <trkpt lat="37.700560" lon="-121.925320">
        <ele>104.231</ele>
        <time>2018-12-29T03:45:17Z</time>
      </trkpt>
      <trkpt lat="37.700510" lon="-121.925580">
        <ele>104.125</ele>
        <time>2018-12-29T03:45:37Z</time>
      </trkpt>
      <trkpt lat="37.700450" lon="-121.925840">
        <ele>104.428</ele>
        <time>2018-12-29T03:45:57Z</time>
      </trkpt>
      <trkpt lat="37.700360" lon="-121.926290">
        <ele>104.892</ele>
        <time>2018-12-29T03:46:17Z</time>
      </trkpt>
      <trkpt lat="37.700320" lon="-121.926460">
        <ele>104.925</ele>
        <time>2018-12-29T03:46:37Z</time>
      </trkpt>
      <trkpt lat="37.700290" lon="-121.926610">
        <ele>105.021</ele>
        <time>2018-12-29T03:46:57Z</time>
      </trkpt>
      <trkpt lat="37.700080" lon="-121.927620">
        <ele>106.041</ele>
        <time>2018-12-29T03:47:17Z</time>
      </trkpt>
      <trkpt lat="37.699950" lon="-121.928190">
        <ele>106.505</ele>
        <time>2018-12-29T03:47:37Z</time>
      </trkpt>
      <trkpt lat="37.699850" lon="-121.928620">
        <ele>106.908</ele>
        <time>2018-12-29T03:47:57Z</time>
      </trkpt>
      <trkpt lat="37.699760" lon="-121.929050">
        <ele>107.335</ele>
        <time>2018-12-29T03:48:17Z</time>
      </trkpt>
      <trkpt lat="37.699680" lon="-121.929390">
        <ele>107.333</ele>
        <time>2018-12-29T03:48:37Z</time>
      </trkpt>
      <trkpt lat="37.699340" lon="-121.930900">
        <ele>108.878</ele>
        <time>2018-12-29T03:48:57Z</time>
      </trkpt>
      <trkpt lat="37.699250" lon="-121.931250">
        <ele>109.317</ele>
        <time>2018-12-29T03:49:17Z</time>
      </trkpt>
      <trkpt lat="37.699170" lon="-121.931600">
        <ele>109.791</ele>
        <time>2018-12-29T03:49:37Z</time>
      </trkpt>
      <trkpt lat="37.699000" lon="-121.932230">
        <ele>110.254</ele>
        <time>2018-12-29T03:49:57Z</time>
      </trkpt>
      <trkpt lat="37.698960" lon="-121.932390">
        <ele>110.378</ele>
        <time>2018-12-29T03:50:17Z</time>
      </trkpt>
      <trkpt lat="37.698930" lon="-121.932550">
        <ele>110.461</ele>
        <time>2018-12-29T03:50:37Z</time>
      </trkpt>
      <trkpt lat="37.698790" lon="-121.933180">
        <ele>110.973</ele>
        <time>2018-12-29T03:50:57Z</time>
      </trkpt>
      <trkpt lat="37.698720" lon="-121.933540">
        <ele>111.285</ele>
        <time>2018-12-29T03:51:17Z</time>
      </trkpt>
      <trkpt lat="37.698690" lon="-121.933730">
        <ele>111.313</ele>
        <time>2018-12-29T03:51:37Z</time>
      </trkpt>
      <trkpt lat="37.698660" lon="-121.933960">
        <ele>111.708</ele>
        <time>2018-12-29T03:51:57Z</time>
      </trkpt>
      <trkpt lat="37.698630" lon="-121.934150">
        <ele>111.940</ele>
        <time>2018-12-29T03:52:17Z</time>
      </trkpt>
      <trkpt lat="37.698610" lon="-121.934320">
        <ele>112.298</ele>
        <time>2018-12-29T03:52:37Z</time>
      </trkpt>
      <trkpt lat="37.698580" lon="-121.934540">
        <ele>112.353</ele>
        <time>2018-12-29T03:52:57Z</time>
      </trkpt>
      <trkpt lat="37.698550" lon="-121.934790">
        <ele>112.562</ele>
        <time>2018-12-29T03:53:17Z</time>
      </trkpt>
      <trkpt lat="37.698540" lon="-121.934910">
        <ele>112.746</ele>
        <time>2018-12-29T03:53:37Z</time>
      </trkpt>
      <trkpt lat="37.698530" lon="-121.935020">
        <ele>112.869</ele>
        <time>2018-12-29T03:53:57Z</time>
      </trkpt>
      <trkpt lat="37.698520" lon="-121.935130">
        <ele>112.913</ele>
        <time>2018-12-29T03:54:17Z</time>
      </trkpt>
      <trkpt lat="37.698510" lon="-121.935250">
        <ele>113.086</ele>
        <time>2018-12-29T03:54:37Z</time>
      </trkpt>
      <trkpt lat="37.698510" lon="-121.935360">
        <ele>113.021</ele>
        <time>2018-12-29T03:54:57Z</time>
      </trkpt>
      <trkpt lat="37.698490" lon="-121.935650">
        <ele>113.141</ele>
        <time>2018-12-29T03:55:17Z</time>
      </trkpt>
      <trkpt lat="37.698480" lon="-121.935830">
        <ele>113.305</ele>
        <time>2018-12-29T03:55:37Z</time>
      </trkpt>
      <trkpt lat="37.698480" lon="-121.936020">
        <ele>113.608</ele>
        <time>2018-12-29T03:55:57Z</time>
      </trkpt>
      <trkpt lat="37.698470" lon="-121.936190">
        <ele>113.875</ele>
        <time>2018-12-29T03:56:17Z</time>
      </trkpt>
      <trkpt lat="37.698470" lon="-121.936380">
        <ele>114.193</ele>
        <time>2018-12-29T03:56:37Z</time>
      </trkpt>
      <trkpt lat="37.698470" lon="-121.936580">
        <ele>114.588</ele>
        <time>2018-12-29T03:56:57Z</time>
      </trkpt>
      <trkpt lat="37.698480" lon="-121.937950">
        <ele>117.917</ele>
        <time>2018-12-29T03:57:17Z</time>
      </trkpt>
      <trkpt lat="37.698480" lon="-121.938800">
        <ele>120.491</ele>
        <time>2018-12-29T03:57:37Z</time>
      </trkpt>
      <trkpt lat="37.698480" lon="-121.938830">
        <ele>120.574</ele>
        <time>2018-12-29T03:57:57Z</time>
      </trkpt>
      <trkpt lat="37.698510" lon="-121.941330">
        <ele>127.168</ele>
        <time>2018-12-29T03:58:17Z</time>
      </trkpt>
      <trkpt lat="37.698560" lon="-121.945730">
        <ele>142.761</ele>
        <time>2018-12-29T03:58:37Z</time>
      </trkpt>
      <trkpt lat="37.698570" lon="-121.947340">
        <ele>147.193</ele>
        <time>2018-12-29T03:58:57Z</time>
      </trkpt>
      <trkpt lat="37.698570" lon="-121.948250">
        <ele>149.865</ele>
        <time>2018-12-29T03:59:17Z</time>
      </trkpt>
      <trkpt lat="37.698590" lon="-121.950480">
        <ele>156.521</ele>
        <time>2018-12-29T03:59:37Z</time>
      </trkpt>
      <trkpt lat="37.698610" lon="-121.953730">
        <ele>165.808</ele>
        <time>2018-12-29T03:59:57Z</time>
      </trkpt>
      <trkpt lat="37.698620" lon="-121.954640">
        <ele>167.952</ele>
        <time>2018-12-29T04:00:17Z</time>
      </trkpt>
      <trkpt lat="37.698620" lon="-121.954800">
        <ele>168.380</ele>
        <time>2018-12-29T04:00:37Z</time>
      </trkpt>
      <trkpt lat="37.698620" lon="-121.955360">
        <ele>169.945</ele>
        <time>2018-12-29T04:00:57Z</time>
      </trkpt>
      <trkpt lat="37.698620" lon="-121.956020">
        <ele>172.134</ele>
        <time>2018-12-29T04:01:17Z</time>
      </trkpt>
      <trkpt lat="37.698630" lon="-121.956640">
        <ele>174.228</ele>
        <time>2018-12-29T04:01:37Z</time>
      </trkpt>
      <trkpt lat="37.698630" lon="-121.956990">
        <ele>175.421</ele>
        <time>2018-12-29T04:01:57Z</time>
      </trkpt>
      <trkpt lat="37.698630" lon="-121.957230">
        <ele>176.285</ele>
        <time>2018-12-29T04:02:17Z</time>
      </trkpt>
      <trkpt lat="37.698620" lon="-121.957470">
        <ele>177.018</ele>
        <time>2018-12-29T04:02:37Z</time>
      </trkpt>
      <trkpt lat="37.698610" lon="-121.957790">
        <ele>178.685</ele>
        <time>2018-12-29T04:02:57Z</time>
      </trkpt>
      <trkpt lat="37.698590" lon="-121.958130">
        <ele>180.289</ele>
        <time>2018-12-29T04:03:17Z</time>
      </trkpt>
      <trkpt lat="37.698560" lon="-121.958540">
        <ele>182.017</ele>
        <time>2018-12-29T04:03:37Z</time>
      </trkpt>
      <trkpt lat="37.698480" lon="-121.959120">
        <ele>181.808</ele>
        <time>2018-12-29T04:03:57Z</time>
      </trkpt>
      <trkpt lat="37.698410" lon="-121.959550">
        <ele>182.851</ele>
        <time>2018-12-29T04:04:17Z</time>
      </trkpt>
      <trkpt lat="37.698350" lon="-121.959900">
        <ele>184.779</ele>
        <time>2018-12-29T04:04:37Z</time>
      </trkpt>
      <trkpt lat="37.698120" lon="-121.961170">
        <ele>187.224</ele>
        <time>2018-12-29T04:04:57Z</time>
      </trkpt>
      <trkpt lat="37.697930" lon="-121.962250">
        <ele>190.983</ele>
        <time>2018-12-29T04:05:17Z</time>
      </trkpt>
      <trkpt lat="37.697860" lon="-121.962680">
        <ele>191.797</ele>
        <time>2018-12-29T04:05:37Z</time>
      </trkpt>
      <trkpt lat="37.697790" lon="-121.963160">
        <ele>194.830</ele>
        <time>2018-12-29T04:05:57Z</time>
      </trkpt>
      <trkpt lat="37.697740" lon="-121.963490">
        <ele>196.644</ele>
        <time>2018-12-29T04:06:17Z</time>
      </trkpt>
      <trkpt lat="37.697700" lon="-121.963790">
        <ele>197.267</ele>
        <time>2018-12-29T04:06:37Z</time>
      </trkpt>
      <trkpt lat="37.697660" lon="-121.964080">
        <ele>196.918</ele>
        <time>2018-12-29T04:06:57Z</time>
      </trkpt>
      <trkpt lat="37.697610" lon="-121.964520">
        <ele>197.498</ele>
        <time>2018-12-29T04:07:17Z</time>
      </trkpt>
      <trkpt lat="37.697560" lon="-121.965070">
        <ele>199.117</ele>
        <time>2018-12-29T04:07:37Z</time>
      </trkpt>
      <trkpt lat="37.697520" lon="-121.965590">
        <ele>201.808</ele>
        <time>2018-12-29T04:07:57Z</time>
      </trkpt>
      <trkpt lat="37.697490" lon="-121.965900">
        <ele>203.424</ele>
        <time>2018-12-29T04:08:17Z</time>
      </trkpt>
      <trkpt lat="37.697470" lon="-121.966310">
        <ele>205.122</ele>
        <time>2018-12-29T04:08:37Z</time>
      </trkpt>
      <trkpt lat="37.697450" lon="-121.966730">
        <ele>206.667</ele>
        <time>2018-12-29T04:08:57Z</time>
      </trkpt>
      <trkpt lat="37.697430" lon="-121.967240">
        <ele>207.836</ele>
        <time>2018-12-29T04:09:17Z</time>
      </trkpt>
      <trkpt lat="37.697420" lon="-121.967880">
        <ele>210.030</ele>
        <time>2018-12-29T04:09:37Z</time>
      </trkpt>
      <trkpt lat="37.697420" lon="-121.968380">
        <ele>211.613</ele>
        <time>2018-12-29T04:09:57Z</time>
      </trkpt>
      <trkpt lat="37.697420" lon="-121.968690">
        <ele>211.477</ele>
        <time>2018-12-29T04:10:17Z</time>
      </trkpt>
      <trkpt lat="37.697430" lon="-121.969010">
        <ele>211.910</ele>
        <time>2018-12-29T04:10:37Z</time>
      </trkpt>
      <trkpt lat="37.697440" lon="-121.969370">
        <ele>213.276</ele>
        <time>2018-12-29T04:10:57Z</time>
      </trkpt>
      <trkpt lat="37.697450" lon="-121.969780">
        <ele>214.790</ele>
        <time>2018-12-29T04:11:17Z</time>
      </trkpt>
      <trkpt lat="37.697470" lon="-121.970140">
        <ele>216.219</ele>
        <time>2018-12-29T04:11:37Z</time>
      </trkpt>
      <trkpt lat="37.697490" lon="-121.970470">
        <ele>216.908</ele>
        <time>2018-12-29T04:11:57Z</time>
      </trkpt>
      <trkpt lat="37.697540" lon="-121.971100">
        <ele>219.140</ele>
        <time>2018-12-29T04:12:17Z</time>
      </trkpt>
      <trkpt lat="37.697570" lon="-121.971450">
        <ele>220.358</ele>
        <time>2018-12-29T04:12:37Z</time>
      </trkpt>
      <trkpt lat="37.697600" lon="-121.971750">
        <ele>221.223</ele>
        <time>2018-12-29T04:12:57Z</time>
      </trkpt>
      <trkpt lat="37.697660" lon="-121.972220">
        <ele>223.012</ele>
        <time>2018-12-29T04:13:17Z</time>
      </trkpt>
      <trkpt lat="37.697720" lon="-121.972740">
        <ele>225.216</ele>
        <time>2018-12-29T04:13:37Z</time>
      </trkpt>
      <trkpt lat="37.697760" lon="-121.973040">
        <ele>225.819</ele>
        <time>2018-12-29T04:13:57Z</time>
      </trkpt>
      <trkpt lat="37.697810" lon="-121.973340">
        <ele>225.633</ele>
        <time>2018-12-29T04:14:17Z</time>
      </trkpt>
      <trkpt lat="37.697880" lon="-121.973820">
        <ele>225.826</ele>
        <time>2018-12-29T04:14:37Z</time>
      </trkpt>
      <trkpt lat="37.698020" lon="-121.974620">
        <ele>228.235</ele>
        <time>2018-12-29T04:14:57Z</time>
      </trkpt>
      <trkpt lat="37.698110" lon="-121.975120">
        <ele>227.086</ele>
        <time>2018-12-29T04:15:17Z</time>
      </trkpt>
      <trkpt lat="37.698180" lon="-121.975530">
        <ele>227.114</ele>
        <time>2018-12-29T04:15:37Z</time>
      </trkpt>
      <trkpt lat="37.698230" lon="-121.975840">
        <ele>228.108</ele>
        <time>2018-12-29T04:15:57Z</time>
      </trkpt>
      <trkpt lat="37.698380" lon="-121.976720">
        <ele>227.296</ele>
        <time>2018-12-29T04:16:17Z</time>
      </trkpt>
      <trkpt lat="37.698530" lon="-121.977620">
        <ele>228.144</ele>
        <time>2018-12-29T04:16:37Z</time>
      </trkpt>
      <trkpt lat="37.698620" lon="-121.978180">
        <ele>226.679</ele>
        <time>2018-12-29T04:16:57Z</time>
      </trkpt>
      <trkpt lat="37.698620" lon="-121.978210">
        <ele>226.478</ele>
        <time>2018-12-29T04:17:17Z</time>
      </trkpt>
      <trkpt lat="37.698670" lon="-121.978470">
        <ele>225.052</ele>
        <time>2018-12-29T04:17:37Z</time>
      </trkpt>
      <trkpt lat="37.698730" lon="-121.978820">
        <ele>224.555</ele>
        <time>2018-12-29T04:17:57Z</time>
      </trkpt>
      <trkpt lat="37.698750" lon="-121.978940">
        <ele>224.379</ele>
        <time>2018-12-29T04:18:17Z</time>
      </trkpt>
      <trkpt lat="37.698830" lon="-121.979380">
        <ele>218.072</ele>
        <time>2018-12-29T04:18:37Z</time>
      </trkpt>
      <trkpt lat="37.698900" lon="-121.979820">
        <ele>222.158</ele>
        <time>2018-12-29T04:18:57Z</time>
      </trkpt>
      <trkpt lat="37.698910" lon="-121.979890">
        <ele>222.352</ele>
        <time>2018-12-29T04:19:17Z</time>
      </trkpt>
      <trkpt lat="37.698990" lon="-121.980340">
        <ele>221.617</ele>
        <time>2018-12-29T04:19:37Z</time>
      </trkpt>
      <trkpt lat="37.699070" lon="-121.980810">
        <ele>221.308</ele>
        <time>2018-12-29T04:19:57Z</time>
      </trkpt>
      <trkpt lat="37.699130" lon="-121.981150">
        <ele>221.518</ele>
        <time>2018-12-29T04:20:17Z</time>
      </trkpt>
      <trkpt lat="37.699210" lon="-121.981600">
        <ele>219.716</ele>
        <time>2018-12-29T04:20:37Z</time>
      </trkpt>
      <trkpt lat="37.699270" lon="-121.981980">
        <ele>218.971</ele>
        <time>2018-12-29T04:20:57Z</time>
      </trkpt>
      <trkpt lat="37.699320" lon="-121.982310">
        <ele>218.650</ele>
        <time>2018-12-29T04:21:17Z</time>
      </trkpt>
      <trkpt lat="37.699350" lon="-121.982500">
        <ele>218.944</ele>
        <time>2018-12-29T04:21:37Z</time>
      </trkpt>
      <trkpt lat="37.699400" lon="-121.982830">
        <ele>218.847</ele>
        <time>2018-12-29T04:21:57Z</time>
      </trkpt>
      <trkpt lat="37.699440" lon="-121.983110">
        <ele>218.011</ele>
        <time>2018-12-29T04:22:17Z</time>
      </trkpt>
      <trkpt lat="37.699490" lon="-121.983540">
        <ele>216.324</ele>
        <time>2018-12-29T04:22:37Z</time>
      </trkpt>
      <trkpt lat="37.699540" lon="-121.984000">
        <ele>215.378</ele>
        <time>2018-12-29T04:22:57Z</time>
      </trkpt>
      <trkpt lat="37.699570" lon="-121.984260">
        <ele>214.833</ele>
        <time>2018-12-29T04:23:17Z</time>
      </trkpt>
      <trkpt lat="37.699640" lon="-121.984840">
        <ele>215.326</ele>
        <time>2018-12-29T04:23:37Z</time>
      </trkpt>
      <trkpt lat="37.699710" lon="-121.985480">
        <ele>214.808</ele>
        <time>2018-12-29T04:23:57Z</time>
      </trkpt>
      <trkpt lat="37.699730" lon="-121.985740">
        <ele>214.030</ele>
        <time>2018-12-29T04:24:17Z</time>
      </trkpt>
      <trkpt lat="37.699760" lon="-121.985950">
        <ele>213.268</ele>
        <time>2018-12-29T04:24:37Z</time>
      </trkpt>
      <trkpt lat="37.699800" lon="-121.986300">
        <ele>212.353</ele>
        <time>2018-12-29T04:24:57Z</time>
      </trkpt>
      <trkpt lat="37.699840" lon="-121.986640">
        <ele>211.832</ele>
        <time>2018-12-29T04:25:17Z</time>
      </trkpt>
      <trkpt lat="37.699870" lon="-121.986820">
        <ele>211.966</ele>
        <time>2018-12-29T04:25:37Z</time>
      </trkpt>
      <trkpt lat="37.699890" lon="-121.986950">
        <ele>212.479</ele>
        <time>2018-12-29T04:25:57Z</time>
      </trkpt>
      <trkpt lat="37.699920" lon="-121.987130">
        <ele>212.873</ele>
        <time>2018-12-29T04:26:17Z</time>
      </trkpt>
      <trkpt lat="37.699970" lon="-121.987400">
        <ele>212.146</ele>
        <time>2018-12-29T04:26:37Z</time>
      </trkpt>
      <trkpt lat="37.700010" lon="-121.987580">
        <ele>211.291</ele>
        <time>2018-12-29T04:26:57Z</time>
      </trkpt>
      <trkpt lat="37.700070" lon="-121.987860">
        <ele>210.481</ele>
        <time>2018-12-29T04:27:17Z</time>
      </trkpt>
      <trkpt lat="37.700130" lon="-121.988100">
        <ele>210.019</ele>
        <time>2018-12-29T04:27:37Z</time>
      </trkpt>
      <trkpt lat="37.700210" lon="-121.988370">
        <ele>209.408</ele>
        <time>2018-12-29T04:27:57Z</time>
      </trkpt>
      <trkpt lat="37.700250" lon="-121.988510">
        <ele>209.112</ele>
        <time>2018-12-29T04:28:17Z</time>
      </trkpt>
      <trkpt lat="37.700290" lon="-121.988650">
        <ele>208.930</ele>
        <time>2018-12-29T04:28:37Z</time>
      </trkpt>
      <trkpt lat="37.700390" lon="-121.988950">
        <ele>208.575</ele>
        <time>2018-12-29T04:28:57Z</time>
      </trkpt>
      <trkpt lat="37.700440" lon="-121.989110">
        <ele>208.724</ele>
        <time>2018-12-29T04:29:17Z</time>
      </trkpt>
      <trkpt lat="37.700550" lon="-121.989400">
        <ele>208.918</ele>
        <time>2018-12-29T04:29:37Z</time>
      </trkpt>
      <trkpt lat="37.700640" lon="-121.989620">
        <ele>206.971</ele>
        <time>2018-12-29T04:29:57Z</time>
      </trkpt>
      <trkpt lat="37.700890" lon="-121.990190">
        <ele>205.745</ele>
        <time>2018-12-29T04:30:17Z</time>
      </trkpt>
      <trkpt lat="37.701240" lon="-121.991000">
        <ele>203.238</ele>
        <time>2018-12-29T04:30:37Z</time>
      </trkpt>
      <trkpt lat="37.701480" lon="-121.991550">
        <ele>201.647</ele>
        <time>2018-12-29T04:30:57Z</time>
      </trkpt>
      <trkpt lat="37.701700" lon="-121.992060">
        <ele>200.429</ele>
        <time>2018-12-29T04:31:17Z</time>
      </trkpt>
      <trkpt lat="37.701780" lon="-121.992250">
        <ele>199.721</ele>
        <time>2018-12-29T04:31:37Z</time>
      </trkpt>
      <trkpt lat="37.701990" lon="-121.992710">
        <ele>198.408</ele>
        <time>2018-12-29T04:31:57Z</time>
      </trkpt>
      <trkpt lat="37.702220" lon="-121.993280">
        <ele>196.187</ele>
        <time>2018-12-29T04:32:17Z</time>
      </trkpt>
      <trkpt lat="37.702380" lon="-121.993720">
        <ele>195.615</ele>
        <time>2018-12-29T04:32:37Z</time>
      </trkpt>
      <trkpt lat="37.702530" lon="-121.994170">
        <ele>194.420</ele>
        <time>2018-12-29T04:32:57Z</time>
      </trkpt>
      <trkpt lat="37.702630" lon="-121.994480">
        <ele>193.469</ele>
        <time>2018-12-29T04:33:17Z</time>
      </trkpt>
      <trkpt lat="37.702720" lon="-121.994770">
        <ele>192.613</ele>
        <time>2018-12-29T04:33:37Z</time>
      </trkpt>
      <trkpt lat="37.702830" lon="-121.995120">
        <ele>191.596</ele>
        <time>2018-12-29T04:33:57Z</time>
      </trkpt>
      <trkpt lat="37.702900" lon="-121.995400">
        <ele>190.820</ele>
        <time>2018-12-29T04:34:17Z</time>
      </trkpt>
      <trkpt lat="37.702950" lon="-121.995570">
        <ele>191.433</ele>
        <time>2018-12-29T04:34:37Z</time>
      </trkpt>
      <trkpt lat="37.703100" lon="-121.996190">
        <ele>188.929</ele>
        <time>2018-12-29T04:34:57Z</time>
      </trkpt>
      <trkpt lat="37.703270" lon="-121.996950">
        <ele>189.000</ele>
        <time>2018-12-29T04:35:17Z</time>
      </trkpt>
      <trkpt lat="37.703390" lon="-121.997590">
        <ele>185.420</ele>
        <time>2018-12-29T04:35:37Z</time>
      </trkpt>
      <trkpt lat="37.703500" lon="-121.998390">
        <ele>183.708</ele>
        <time>2018-12-29T04:35:57Z</time>
      </trkpt>
      <trkpt lat="37.703540" lon="-121.998620">
        <ele>184.115</ele>
        <time>2018-12-29T04:36:17Z</time>
      </trkpt>
      <trkpt lat="37.703570" lon="-121.998880">
        <ele>184.013</ele>
        <time>2018-12-29T04:36:37Z</time>
      </trkpt>
      <trkpt lat="37.703600" lon="-121.999220">
        <ele>183.158</ele>
        <time>2018-12-29T04:36:57Z</time>
      </trkpt>
      <trkpt lat="37.703630" lon="-121.999520">
        <ele>181.487</ele>
        <time>2018-12-29T04:37:17Z</time>
      </trkpt>
      <trkpt lat="37.703660" lon="-121.999830">
        <ele>179.361</ele>
        <time>2018-12-29T04:37:37Z</time>
      </trkpt>
      <trkpt lat="37.703680" lon="-122.000160">
        <ele>178.084</ele>
        <time>2018-12-29T04:37:57Z</time>
      </trkpt>
      <trkpt lat="37.703700" lon="-122.000490">
        <ele>177.388</ele>
        <time>2018-12-29T04:38:17Z</time>
      </trkpt>
      <trkpt lat="37.703710" lon="-122.000820">
        <ele>176.451</ele>
        <time>2018-12-29T04:38:37Z</time>
      </trkpt>
      <trkpt lat="37.703720" lon="-122.001160">
        <ele>175.514</ele>
        <time>2018-12-29T04:38:57Z</time>
      </trkpt>
      <trkpt lat="37.703720" lon="-122.001480">
        <ele>174.754</ele>
        <time>2018-12-29T04:39:17Z</time>
      </trkpt>
      <trkpt lat="37.703720" lon="-122.001800">
        <ele>173.809</ele>
        <time>2018-12-29T04:39:37Z</time>
      </trkpt>
      <trkpt lat="37.703720" lon="-122.002120">
        <ele>173.008</ele>
        <time>2018-12-29T04:39:57Z</time>
      </trkpt>
      <trkpt lat="37.703690" lon="-122.002930">
        <ele>170.754</ele>
        <time>2018-12-29T04:40:17Z</time>
      </trkpt>
      <trkpt lat="37.703640" lon="-122.003920">
        <ele>169.122</ele>
        <time>2018-12-29T04:40:37Z</time>
      </trkpt>
      <trkpt lat="37.703610" lon="-122.004750">
        <ele>168.187</ele>
        <time>2018-12-29T04:40:57Z</time>
      </trkpt>
      <trkpt lat="37.703560" lon="-122.005710">
        <ele>166.026</ele>
        <time>2018-12-29T04:41:17Z</time>
      </trkpt>
      <trkpt lat="37.703490" lon="-122.007180">
        <ele>159.940</ele>
        <time>2018-12-29T04:41:37Z</time>
      </trkpt>
      <trkpt lat="37.703410" lon="-122.008660">
        <ele>155.453</ele>
        <time>2018-12-29T04:41:57Z</time>
      </trkpt>
      <trkpt lat="37.703350" lon="-122.009950">
        <ele>153.217</ele>
        <time>2018-12-29T04:42:17Z</time>
      </trkpt>
      <trkpt lat="37.703300" lon="-122.011090">
        <ele>150.780</ele>
        <time>2018-12-29T04:42:37Z</time>
      </trkpt>
      <trkpt lat="37.703240" lon="-122.012280">
        <ele>147.013</ele>
        <time>2018-12-29T04:42:57Z</time>
      </trkpt>
      <trkpt lat="37.703190" lon="-122.013190">
        <ele>143.643</ele>
        <time>2018-12-29T04:43:17Z</time>
      </trkpt>
      <trkpt lat="37.703150" lon="-122.014180">
        <ele>141.207</ele>
        <time>2018-12-29T04:43:37Z</time>
      </trkpt>
      <trkpt lat="37.703110" lon="-122.015050">
        <ele>139.208</ele>
        <time>2018-12-29T04:43:57Z</time>
      </trkpt>
      <trkpt lat="37.703090" lon="-122.015240">
        <ele>138.984</ele>
        <time>2018-12-29T04:44:17Z</time>
      </trkpt>
      <trkpt lat="37.703070" lon="-122.015460">
        <ele>138.822</ele>
        <time>2018-12-29T04:44:37Z</time>
      </trkpt>
      <trkpt lat="37.703050" lon="-122.015690">
        <ele>138.667</ele>
        <time>2018-12-29T04:44:57Z</time>
      </trkpt>
      <trkpt lat="37.703020" lon="-122.015940">
        <ele>138.446</ele>
        <time>2018-12-29T04:45:17Z</time>
      </trkpt>
      <trkpt lat="37.702990" lon="-122.016200">
        <ele>138.110</ele>
        <time>2018-12-29T04:45:37Z</time>
      </trkpt>
      <trkpt lat="37.702970" lon="-122.016390">
        <ele>137.483</ele>
        <time>2018-12-29T04:45:57Z</time>
      </trkpt>
      <trkpt lat="37.702930" lon="-122.016620">
        <ele>135.647</ele>
        <time>2018-12-29T04:46:17Z</time>
      </trkpt>
      <trkpt lat="37.702820" lon="-122.017200">
        <ele>133.710</ele>
        <time>2018-12-29T04:46:37Z</time>
      </trkpt>
      <trkpt lat="37.702760" lon="-122.017440">
        <ele>133.481</ele>
        <time>2018-12-29T04:46:57Z</time>
      </trkpt>
      <trkpt lat="37.702740" lon="-122.017560">
        <ele>133.461</ele>
        <time>2018-12-29T04:47:17Z</time>
      </trkpt>
      <trkpt lat="37.702670" lon="-122.017790">
        <ele>132.417</ele>
        <time>2018-12-29T04:47:37Z</time>
      </trkpt>
      <trkpt lat="37.702630" lon="-122.017950">
        <ele>131.608</ele>
        <time>2018-12-29T04:47:57Z</time>
      </trkpt>
      <trkpt lat="37.702590" lon="-122.018100">
        <ele>131.241</ele>
        <time>2018-12-29T04:48:17Z</time>
      </trkpt>
      <trkpt lat="37.702540" lon="-122.018270">
        <ele>130.799</ele>
        <time>2018-12-29T04:48:37Z</time>
      </trkpt>
      <trkpt lat="37.702480" lon="-122.018440">
        <ele>130.174</ele>
        <time>2018-12-29T04:48:57Z</time>
      </trkpt>
      <trkpt lat="37.702420" lon="-122.018610">
        <ele>129.773</ele>
        <time>2018-12-29T04:49:17Z</time>
      </trkpt>
      <trkpt lat="37.702360" lon="-122.018770">
        <ele>129.267</ele>
        <time>2018-12-29T04:49:37Z</time>
      </trkpt>
      <trkpt lat="37.702280" lon="-122.019010">
        <ele>128.620</ele>
        <time>2018-12-29T04:49:57Z</time>
      </trkpt>
      <trkpt lat="37.702210" lon="-122.019210">
        <ele>127.984</ele>
        <time>2018-12-29T04:50:17Z</time>
      </trkpt>
      <trkpt lat="37.702070" lon="-122.019580">
        <ele>127.527</ele>
        <time>2018-12-29T04:50:37Z</time>
      </trkpt>
      <trkpt lat="37.701870" lon="-122.020100">
        <ele>126.181</ele>
        <time>2018-12-29T04:50:57Z</time>
      </trkpt>
      <trkpt lat="37.701720" lon="-122.020520">
        <ele>126.461</ele>
        <time>2018-12-29T04:51:17Z</time>
      </trkpt>
      <trkpt lat="37.701570" lon="-122.020970">
        <ele>125.617</ele>
        <time>2018-12-29T04:51:37Z</time>
      </trkpt>
      <trkpt lat="37.701520" lon="-122.021150">
        <ele>121.908</ele>
        <time>2018-12-29T04:51:57Z</time>
      </trkpt>
      <trkpt lat="37.701480" lon="-122.021270">
        <ele>120.171</ele>
        <time>2018-12-29T04:52:17Z</time>
      </trkpt>
      <trkpt lat="37.701430" lon="-122.021450">
        <ele>125.019</ele>
        <time>2018-12-29T04:52:37Z</time>
      </trkpt>
      <trkpt lat="37.701370" lon="-122.021710">
        <ele>127.184</ele>
        <time>2018-12-29T04:52:57Z</time>
      </trkpt>
      <trkpt lat="37.701310" lon="-122.021950">
        <ele>127.343</ele>
        <time>2018-12-29T04:53:17Z</time>
      </trkpt>
      <trkpt lat="37.701200" lon="-122.022480">
        <ele>128.167</ele>
        <time>2018-12-29T04:53:37Z</time>
      </trkpt>
      <trkpt lat="37.701170" lon="-122.022710">
        <ele>128.360</ele>
        <time>2018-12-29T04:53:57Z</time>
      </trkpt>
      <trkpt lat="37.701140" lon="-122.022870">
        <ele>128.564</ele>
        <time>2018-12-29T04:54:17Z</time>
      </trkpt>
      <trkpt lat="37.701120" lon="-122.023040">
        <ele>128.627</ele>
        <time>2018-12-29T04:54:37Z</time>
      </trkpt>
      <trkpt lat="37.701100" lon="-122.023200">
        <ele>128.799</ele>
        <time>2018-12-29T04:54:57Z</time>
      </trkpt>
      <trkpt lat="37.701080" lon="-122.023370">
        <ele>128.907</ele>
        <time>2018-12-29T04:55:17Z</time>
      </trkpt>
      <trkpt lat="37.701050" lon="-122.023680">
        <ele>129.327</ele>
        <time>2018-12-29T04:55:37Z</time>
      </trkpt>
      <trkpt lat="37.701040" lon="-122.023850">
        <ele>129.708</ele>
        <time>2018-12-29T04:55:57Z</time>
      </trkpt>
      <trkpt lat="37.701030" lon="-122.024010">
        <ele>130.182</ele>
        <time>2018-12-29T04:56:17Z</time>
      </trkpt>
      <trkpt lat="37.701020" lon="-122.024170">
        <ele>130.490</ele>
        <time>2018-12-29T04:56:37Z</time>
      </trkpt>
      <trkpt lat="37.701020" lon="-122.024330">
        <ele>130.835</ele>
        <time>2018-12-29T04:56:57Z</time>
      </trkpt>
      <trkpt lat="37.701010" lon="-122.024500">
        <ele>130.924</ele>
        <time>2018-12-29T04:57:17Z</time>
      </trkpt>
      <trkpt lat="37.701010" lon="-122.024670">
        <ele>131.198</ele>
        <time>2018-12-29T04:57:37Z</time>
      </trkpt>
      <trkpt lat="37.701010" lon="-122.024830">
        <ele>131.311</ele>
        <time>2018-12-29T04:57:57Z</time>
      </trkpt>
      <trkpt lat="37.701010" lon="-122.024990">
        <ele>131.585</ele>
        <time>2018-12-29T04:58:17Z</time>
      </trkpt>
      <trkpt lat="37.701010" lon="-122.025140">
        <ele>131.648</ele>
        <time>2018-12-29T04:58:37Z</time>
      </trkpt>
      <trkpt lat="37.701030" lon="-122.025390">
        <ele>132.121</ele>
        <time>2018-12-29T04:58:57Z</time>
      </trkpt>
      <trkpt lat="37.701040" lon="-122.025600">
        <ele>132.141</ele>
        <time>2018-12-29T04:59:17Z</time>
      </trkpt>
      <trkpt lat="37.701060" lon="-122.025820">
        <ele>132.105</ele>
        <time>2018-12-29T04:59:37Z</time>
      </trkpt>
      <trkpt lat="37.701080" lon="-122.026080">
        <ele>132.108</ele>
        <time>2018-12-29T04:59:57Z</time>
      </trkpt>
      <trkpt lat="37.701090" lon="-122.026160">
        <ele>132.115</ele>
        <time>2018-12-29T05:00:17Z</time>
      </trkpt>
      <trkpt lat="37.701100" lon="-122.026250">
        <ele>132.253</ele>
        <time>2018-12-29T05:00:37Z</time>
      </trkpt>
      <trkpt lat="37.701140" lon="-122.026550">
        <ele>132.078</ele>
        <time>2018-12-29T05:00:57Z</time>
      </trkpt>
      <trkpt lat="37.701170" lon="-122.026720">
        <ele>132.187</ele>
        <time>2018-12-29T05:01:17Z</time>
      </trkpt>
      <trkpt lat="37.701200" lon="-122.026910">
        <ele>132.321</ele>
        <time>2018-12-29T05:01:37Z</time>
      </trkpt>
      <trkpt lat="37.701230" lon="-122.027060">
        <ele>132.424</ele>
        <time>2018-12-29T05:01:57Z</time>
      </trkpt>
      <trkpt lat="37.701240" lon="-122.027130">
        <ele>132.538</ele>
        <time>2018-12-29T05:02:17Z</time>
      </trkpt>
      <trkpt lat="37.701280" lon="-122.027320">
        <ele>133.451</ele>
        <time>2018-12-29T05:02:37Z</time>
      </trkpt>
      <trkpt lat="37.701320" lon="-122.027510">
        <ele>134.116</ele>
        <time>2018-12-29T05:02:57Z</time>
      </trkpt>
      <trkpt lat="37.701340" lon="-122.027630">
        <ele>134.176</ele>
        <time>2018-12-29T05:03:17Z</time>
      </trkpt>
      <trkpt lat="37.701370" lon="-122.027720">
        <ele>134.113</ele>
        <time>2018-12-29T05:03:37Z</time>
      </trkpt>
      <trkpt lat="37.701390" lon="-122.027830">
        <ele>133.708</ele>
        <time>2018-12-29T05:03:57Z</time>
      </trkpt>
      <trkpt lat="37.701440" lon="-122.028010">
        <ele>133.264</ele>
        <time>2018-12-29T05:04:17Z</time>
      </trkpt>
      <trkpt lat="37.701570" lon="-122.028460">
        <ele>134.152</ele>
        <time>2018-12-29T05:04:37Z</time>
      </trkpt>
      <trkpt lat="37.701820" lon="-122.029370">
        <ele>133.317</ele>
        <time>2018-12-29T05:04:57Z</time>
      </trkpt>
      <trkpt lat="37.701890" lon="-122.029640">
        <ele>134.096</ele>
        <time>2018-12-29T05:05:17Z</time>
      </trkpt>
      <trkpt lat="37.701950" lon="-122.029830">
        <ele>133.490</ele>
        <time>2018-12-29T05:05:37Z</time>
      </trkpt>
      <trkpt lat="37.701990" lon="-122.030010">
        <ele>132.893</ele>
        <time>2018-12-29T05:05:57Z</time>
      </trkpt>
      <trkpt lat="37.702020" lon="-122.030160">
        <ele>132.327</ele>
        <time>2018-12-29T05:06:17Z</time>
      </trkpt>
      <trkpt lat="37.702050" lon="-122.030290">
        <ele>132.130</ele>
        <time>2018-12-29T05:06:37Z</time>
      </trkpt>
      <trkpt lat="37.702090" lon="-122.030460">
        <ele>132.045</ele>
        <time>2018-12-29T05:06:57Z</time>
      </trkpt>
      <trkpt lat="37.702120" lon="-122.030650">
        <ele>132.547</ele>
        <time>2018-12-29T05:07:17Z</time>
      </trkpt>
      <trkpt lat="37.702150" lon="-122.030800">
        <ele>132.711</ele>
        <time>2018-12-29T05:07:37Z</time>
      </trkpt>
      <trkpt lat="37.702170" lon="-122.030950">
        <ele>132.308</ele>
        <time>2018-12-29T05:07:57Z</time>
      </trkpt>
      <trkpt lat="37.702200" lon="-122.031120">
        <ele>132.097</ele>
        <time>2018-12-29T05:08:17Z</time>
      </trkpt>
      <trkpt lat="37.702220" lon="-122.031270">
        <ele>131.445</ele>
        <time>2018-12-29T05:08:37Z</time>
      </trkpt>
      <trkpt lat="37.702240" lon="-122.031440">
        <ele>130.870</ele>
        <time>2018-12-29T05:08:57Z</time>
      </trkpt>
      <trkpt lat="37.702260" lon="-122.031580">
        <ele>130.339</ele>
        <time>2018-12-29T05:09:17Z</time>
      </trkpt>
      <trkpt lat="37.702270" lon="-122.031740">
        <ele>129.943</ele>
        <time>2018-12-29T05:09:37Z</time>
      </trkpt>
      <trkpt lat="37.702290" lon="-122.031940">
        <ele>129.436</ele>
        <time>2018-12-29T05:09:57Z</time>
      </trkpt>
      <trkpt lat="37.702300" lon="-122.032070">
        <ele>129.140</ele>
        <time>2018-12-29T05:10:17Z</time>
      </trkpt>
      <trkpt lat="37.702310" lon="-122.032240">
        <ele>128.733</ele>
        <time>2018-12-29T05:10:37Z</time>
      </trkpt>
      <trkpt lat="37.702330" lon="-122.032500">
        <ele>128.094</ele>
        <time>2018-12-29T05:10:57Z</time>
      </trkpt>
      <trkpt lat="37.702330" lon="-122.032660">
        <ele>127.557</ele>
        <time>2018-12-29T05:11:17Z</time>
      </trkpt>
      <trkpt lat="37.702340" lon="-122.032880">
        <ele>126.922</ele>
        <time>2018-12-29T05:11:37Z</time>
      </trkpt>
      <trkpt lat="37.702340" lon="-122.033060">
        <ele>126.508</ele>
        <time>2018-12-29T05:11:57Z</time>
      </trkpt>
      <trkpt lat="37.702330" lon="-122.033390">
        <ele>125.662</ele>
        <time>2018-12-29T05:12:17Z</time>
      </trkpt>
      <trkpt lat="37.702330" lon="-122.033530">
        <ele>125.360</ele>
        <time>2018-12-29T05:12:37Z</time>
      </trkpt>
      <trkpt lat="37.702320" lon="-122.033670">
        <ele>124.985</ele>
        <time>2018-12-29T05:12:57Z</time>
      </trkpt>
      <trkpt lat="37.702320" lon="-122.033750">
        <ele>124.774</ele>
        <time>2018-12-29T05:13:17Z</time>
      </trkpt>
      <trkpt lat="37.702310" lon="-122.033860">
        <ele>124.428</ele>
        <time>2018-12-29T05:13:37Z</time>
      </trkpt>
      <trkpt lat="37.702300" lon="-122.034090">
        <ele>123.891</ele>
        <time>2018-12-29T05:13:57Z</time>
      </trkpt>
      <trkpt lat="37.702280" lon="-122.034320">
        <ele>123.285</ele>
        <time>2018-12-29T05:14:17Z</time>
      </trkpt>
      <trkpt lat="37.702260" lon="-122.034490">
        <ele>122.448</ele>
        <time>2018-12-29T05:14:37Z</time>
      </trkpt>
      <trkpt lat="37.702220" lon="-122.034800">
        <ele>120.334</ele>
        <time>2018-12-29T05:14:57Z</time>
      </trkpt>
      <trkpt lat="37.702210" lon="-122.034950">
        <ele>119.255</ele>
        <time>2018-12-29T05:15:17Z</time>
      </trkpt>
      <trkpt lat="37.702180" lon="-122.035110">
        <ele>118.410</ele>
        <time>2018-12-29T05:15:37Z</time>
      </trkpt>
      <trkpt lat="37.702100" lon="-122.035620">
        <ele>106.208</ele>
        <time>2018-12-29T05:15:57Z</time>
      </trkpt>
      <trkpt lat="37.702040" lon="-122.035890">
        <ele>102.396</ele>
        <time>2018-12-29T05:16:17Z</time>
      </trkpt>
      <trkpt lat="37.702040" lon="-122.035900">
        <ele>102.274</ele>
        <time>2018-12-29T05:16:37Z</time>
      </trkpt>
      <trkpt lat="37.701950" lon="-122.036280">
        <ele>102.379</ele>
        <time>2018-12-29T05:16:57Z</time>
      </trkpt>
      <trkpt lat="37.701900" lon="-122.036430">
        <ele>102.798</ele>
        <time>2018-12-29T05:17:17Z</time>
      </trkpt>
      <trkpt lat="37.701860" lon="-122.036590">
        <ele>103.272</ele>
        <time>2018-12-29T05:17:37Z</time>
      </trkpt>
      <trkpt lat="37.701760" lon="-122.036900">
        <ele>105.465</ele>
        <time>2018-12-29T05:17:57Z</time>
      </trkpt>
      <trkpt lat="37.701720" lon="-122.037050">
        <ele>107.039</ele>
        <time>2018-12-29T05:18:17Z</time>
      </trkpt>
      <trkpt lat="37.701660" lon="-122.037210">
        <ele>108.592</ele>
        <time>2018-12-29T05:18:37Z</time>
      </trkpt>
      <trkpt lat="37.701610" lon="-122.037360">
        <ele>108.916</ele>
        <time>2018-12-29T05:18:57Z</time>
      </trkpt>
      <trkpt lat="37.701570" lon="-122.037480">
        <ele>109.376</ele>
        <time>2018-12-29T05:19:17Z</time>
      </trkpt>
      <trkpt lat="37.701500" lon="-122.037680">
        <ele>109.913</ele>
        <time>2018-12-29T05:19:37Z</time>
      </trkpt>
      <trkpt lat="37.701390" lon="-122.037930">
        <ele>112.208</ele>
        <time>2018-12-29T05:19:57Z</time>
      </trkpt>
      <trkpt lat="37.701320" lon="-122.038120">
        <ele>112.454</ele>
        <time>2018-12-29T05:20:17Z</time>
      </trkpt>
      <trkpt lat="37.701240" lon="-122.038300">
        <ele>112.612</ele>
        <time>2018-12-29T05:20:37Z</time>
      </trkpt>
      <trkpt lat="37.701080" lon="-122.038640">
        <ele>111.477</ele>
        <time>2018-12-29T05:20:57Z</time>
      </trkpt>
      <trkpt lat="37.700950" lon="-122.038890">
        <ele>111.126</ele>
        <time>2018-12-29T05:21:17Z</time>
      </trkpt>
      <trkpt lat="37.700860" lon="-122.039060">
        <ele>110.650</ele>
        <time>2018-12-29T05:21:37Z</time>
      </trkpt>
      <trkpt lat="37.700780" lon="-122.039200">
        <ele>110.113</ele>
        <time>2018-12-29T05:21:57Z</time>
      </trkpt>
      <trkpt lat="37.700700" lon="-122.039350">
        <ele>109.967</ele>
        <time>2018-12-29T05:22:17Z</time>
      </trkpt>
      <trkpt lat="37.700480" lon="-122.039700">
        <ele>109.090</ele>
        <time>2018-12-29T05:22:37Z</time>
      </trkpt>
      <trkpt lat="37.700230" lon="-122.040090">
        <ele>109.076</ele>
        <time>2018-12-29T05:22:57Z</time>
      </trkpt>
      <trkpt lat="37.700140" lon="-122.040210">
        <ele>108.390</ele>
        <time>2018-12-29T05:23:17Z</time>
      </trkpt>
      <trkpt lat="37.700040" lon="-122.040350">
        <ele>108.219</ele>
        <time>2018-12-29T05:23:37Z</time>
      </trkpt>
      <trkpt lat="37.699890" lon="-122.040550">
        <ele>107.408</ele>
        <time>2018-12-29T05:23:57Z</time>
      </trkpt>
      <trkpt lat="37.699780" lon="-122.040680">
        <ele>106.720</ele>
        <time>2018-12-29T05:24:17Z</time>
      </trkpt>
      <trkpt lat="37.699500" lon="-122.041010">
        <ele>106.498</ele>
        <time>2018-12-29T05:24:37Z</time>
      </trkpt>
      <trkpt lat="37.699220" lon="-122.041320">
        <ele>106.093</ele>
        <time>2018-12-29T05:24:57Z</time>
      </trkpt>
      <trkpt lat="37.698830" lon="-122.041740">
        <ele>104.692</ele>
        <time>2018-12-29T05:25:17Z</time>
      </trkpt>
      <trkpt lat="37.698030" lon="-122.042600">
        <ele>101.626</ele>
        <time>2018-12-29T05:25:37Z</time>
      </trkpt>
      <trkpt lat="37.697540" lon="-122.043120">
        <ele>85.499</ele>
        <time>2018-12-29T05:25:57Z</time>
      </trkpt>
      <trkpt lat="37.696940" lon="-122.043770">
        <ele>80.373</ele>
        <time>2018-12-29T05:26:17Z</time>
      </trkpt>
      <trkpt lat="37.696450" lon="-122.044300">
        <ele>86.576</ele>
        <time>2018-12-29T05:26:37Z</time>
      </trkpt>
      <trkpt lat="37.696170" lon="-122.044620">
        <ele>85.371</ele>
        <time>2018-12-29T05:26:57Z</time>
      </trkpt>
      <trkpt lat="37.696070" lon="-122.044730">
        <ele>82.241</ele>
        <time>2018-12-29T05:27:17Z</time>
      </trkpt>
      <trkpt lat="37.695970" lon="-122.044850">
        <ele>77.715</ele>
        <time>2018-12-29T05:27:37Z</time>
      </trkpt>
      <trkpt lat="37.695900" lon="-122.044950">
        <ele>76.308</ele>
        <time>2018-12-29T05:27:57Z</time>
      </trkpt>
      <trkpt lat="37.695810" lon="-122.045070">
        <ele>76.450</ele>
        <time>2018-12-29T05:28:17Z</time>
      </trkpt>
      <trkpt lat="37.695720" lon="-122.045190">
        <ele>79.688</ele>
        <time>2018-12-29T05:28:37Z</time>
      </trkpt>
      <trkpt lat="37.695610" lon="-122.045340">
        <ele>87.093</ele>
        <time>2018-12-29T05:28:57Z</time>
      </trkpt>
      <trkpt lat="37.695430" lon="-122.045620">
        <ele>92.672</ele>
        <time>2018-12-29T05:29:17Z</time>
      </trkpt>
      <trkpt lat="37.695260" lon="-122.045880">
        <ele>94.136</ele>
        <time>2018-12-29T05:29:37Z</time>
      </trkpt>
      <trkpt lat="37.695020" lon="-122.046300">
        <ele>92.519</ele>
        <time>2018-12-29T05:29:57Z</time>
      </trkpt>
      <trkpt lat="37.694820" lon="-122.046680">
        <ele>91.193</ele>
        <time>2018-12-29T05:30:17Z</time>
      </trkpt>
      <trkpt lat="37.694600" lon="-122.047130">
        <ele>90.936</ele>
        <time>2018-12-29T05:30:37Z</time>
      </trkpt>
      <trkpt lat="37.694440" lon="-122.047530">
        <ele>91.877</ele>
        <time>2018-12-29T05:30:57Z</time>
      </trkpt>
      <trkpt lat="37.694360" lon="-122.047730">
        <ele>91.361</ele>
        <time>2018-12-29T05:31:17Z</time>
      </trkpt>
      <trkpt lat="37.694230" lon="-122.048100">
        <ele>89.827</ele>
        <time>2018-12-29T05:31:37Z</time>
      </trkpt>
      <trkpt lat="37.694120" lon="-122.048440">
        <ele>91.208</ele>
        <time>2018-12-29T05:31:57Z</time>
      </trkpt>
      <trkpt lat="37.694050" lon="-122.048690">
        <ele>89.390</ele>
        <time>2018-12-29T05:32:17Z</time>
      </trkpt>
      <trkpt lat="37.693920" lon="-122.049170">
        <ele>87.998</ele>
        <time>2018-12-29T05:32:37Z</time>
      </trkpt>
      <trkpt lat="37.693830" lon="-122.049590">
        <ele>87.573</ele>
        <time>2018-12-29T05:32:57Z</time>
      </trkpt>
      <trkpt lat="37.693780" lon="-122.049830">
        <ele>87.212</ele>
        <time>2018-12-29T05:33:17Z</time>
      </trkpt>
      <trkpt lat="37.693730" lon="-122.050120">
        <ele>86.386</ele>
        <time>2018-12-29T05:33:37Z</time>
      </trkpt>
      <trkpt lat="37.693710" lon="-122.050290">
        <ele>86.039</ele>
        <time>2018-12-29T05:33:57Z</time>
      </trkpt>
      <trkpt lat="37.693680" lon="-122.050490">
        <ele>85.653</ele>
        <time>2018-12-29T05:34:17Z</time>
      </trkpt>
      <trkpt lat="37.693650" lon="-122.050770">
        <ele>85.286</ele>
        <time>2018-12-29T05:34:37Z</time>
      </trkpt>
      <trkpt lat="37.693630" lon="-122.050940">
        <ele>84.925</ele>
        <time>2018-12-29T05:34:57Z</time>
      </trkpt>
      <trkpt lat="37.693610" lon="-122.051090">
        <ele>84.626</ele>
        <time>2018-12-29T05:35:17Z</time>
      </trkpt>
      <trkpt lat="37.693600" lon="-122.051280">
        <ele>84.308</ele>
        <time>2018-12-29T05:35:37Z</time>
      </trkpt>
      <trkpt lat="37.693590" lon="-122.051420">
        <ele>84.208</ele>
        <time>2018-12-29T05:35:57Z</time>
      </trkpt>
      <trkpt lat="37.693580" lon="-122.051590">
        <ele>84.185</ele>
        <time>2018-12-29T05:36:17Z</time>
      </trkpt>
      <trkpt lat="37.693580" lon="-122.051750">
        <ele>84.093</ele>
        <time>2018-12-29T05:36:37Z</time>
      </trkpt>
      <trkpt lat="37.693570" lon="-122.051940">
        <ele>83.898</ele>
        <time>2018-12-29T05:36:57Z</time>
      </trkpt>
      <trkpt lat="37.693570" lon="-122.052040">
        <ele>83.757</ele>
        <time>2018-12-29T05:37:17Z</time>
      </trkpt>
      <trkpt lat="37.693570" lon="-122.052200">
        <ele>83.541</ele>
        <time>2018-12-29T05:37:37Z</time>
      </trkpt>
      <trkpt lat="37.693570" lon="-122.052410">
        <ele>83.224</ele>
        <time>2018-12-29T05:37:57Z</time>
      </trkpt>
      <trkpt lat="37.693580" lon="-122.052630">
        <ele>83.138</ele>
        <time>2018-12-29T05:38:17Z</time>
      </trkpt>
      <trkpt lat="37.693590" lon="-122.052890">
        <ele>82.511</ele>
        <time>2018-12-29T05:38:37Z</time>
      </trkpt>
      <trkpt lat="37.693620" lon="-122.053190">
        <ele>81.637</ele>
        <time>2018-12-29T05:38:57Z</time>
      </trkpt>
      <trkpt lat="37.693630" lon="-122.053370">
        <ele>81.049</ele>
        <time>2018-12-29T05:39:17Z</time>
      </trkpt>
      <trkpt lat="37.693650" lon="-122.053530">
        <ele>80.513</ele>
        <time>2018-12-29T05:39:37Z</time>
      </trkpt>
      <trkpt lat="37.693670" lon="-122.053690">
        <ele>80.108</ele>
        <time>2018-12-29T05:39:57Z</time>
      </trkpt>
      <trkpt lat="37.693700" lon="-122.054020">
        <ele>79.556</ele>
        <time>2018-12-29T05:40:17Z</time>
      </trkpt>
      <trkpt lat="37.693750" lon="-122.054430">
        <ele>78.914</ele>
        <time>2018-12-29T05:40:37Z</time>
      </trkpt>
      <trkpt lat="37.693880" lon="-122.055590">
        <ele>77.349</ele>
        <time>2018-12-29T05:40:57Z</time>
      </trkpt>
      <trkpt lat="37.693900" lon="-122.055800">
        <ele>76.978</ele>
        <time>2018-12-29T05:41:17Z</time>
      </trkpt>
      <trkpt lat="37.693920" lon="-122.056050">
        <ele>76.192</ele>
        <time>2018-12-29T05:41:37Z</time>
      </trkpt>
      <trkpt lat="37.693930" lon="-122.056200">
        <ele>75.375</ele>
        <time>2018-12-29T05:41:57Z</time>
      </trkpt>
      <trkpt lat="37.693940" lon="-122.056350">
        <ele>73.229</ele>
        <time>2018-12-29T05:42:17Z</time>
      </trkpt>
      <trkpt lat="37.693950" lon="-122.056520">
        <ele>69.772</ele>
        <time>2018-12-29T05:42:37Z</time>
      </trkpt>
      <trkpt lat="37.693950" lon="-122.056780">
        <ele>68.494</ele>
        <time>2018-12-29T05:42:57Z</time>
      </trkpt>
      <trkpt lat="37.693960" lon="-122.057090">
        <ele>67.857</ele>
        <time>2018-12-29T05:43:17Z</time>
      </trkpt>
      <trkpt lat="37.693940" lon="-122.057330">
        <ele>71.722</ele>
        <time>2018-12-29T05:43:37Z</time>
      </trkpt>
      <trkpt lat="37.693930" lon="-122.057630">
        <ele>73.508</ele>
        <time>2018-12-29T05:43:57Z</time>
      </trkpt>
      <trkpt lat="37.693910" lon="-122.057930">
        <ele>72.932</ele>
        <time>2018-12-29T05:44:17Z</time>
      </trkpt>
      <trkpt lat="37.693830" lon="-122.058760">
        <ele>70.430</ele>
        <time>2018-12-29T05:44:37Z</time>
      </trkpt>
      <trkpt lat="37.693810" lon="-122.058860">
        <ele>70.285</ele>
        <time>2018-12-29T05:44:57Z</time>
      </trkpt>
      <trkpt lat="37.693780" lon="-122.059000">
        <ele>70.344</ele>
        <time>2018-12-29T05:45:17Z</time>
      </trkpt>
      <trkpt lat="37.693760" lon="-122.059170">
        <ele>68.858</ele>
        <time>2018-12-29T05:45:37Z</time>
      </trkpt>
      <trkpt lat="37.693730" lon="-122.059320">
        <ele>67.041</ele>
        <time>2018-12-29T05:45:57Z</time>
      </trkpt>
      <trkpt lat="37.693700" lon="-122.059490">
        <ele>60.635</ele>
        <time>2018-12-29T05:46:17Z</time>
      </trkpt>
      <trkpt lat="37.693650" lon="-122.059750">
        <ele>55.488</ele>
        <time>2018-12-29T05:46:37Z</time>
      </trkpt>
      <trkpt lat="37.693590" lon="-122.059960">
        <ele>57.117</ele>
        <time>2018-12-29T05:46:57Z</time>
      </trkpt>
      <trkpt lat="37.693480" lon="-122.060430">
        <ele>67.987</ele>
        <time>2018-12-29T05:47:17Z</time>
      </trkpt>
      <trkpt lat="37.693360" lon="-122.060850">
        <ele>66.715</ele>
        <time>2018-12-29T05:47:37Z</time>
      </trkpt>
      <trkpt lat="37.693180" lon="-122.061510">
        <ele>64.908</ele>
        <time>2018-12-29T05:47:57Z</time>
      </trkpt>
      <trkpt lat="37.693080" lon="-122.061850">
        <ele>63.644</ele>
        <time>2018-12-29T05:48:17Z</time>
      </trkpt>
      <trkpt lat="37.692950" lon="-122.062320">
        <ele>63.132</ele>
        <time>2018-12-29T05:48:37Z</time>
      </trkpt>
      <trkpt lat="37.692950" lon="-122.062340">
        <ele>63.117</ele>
        <time>2018-12-29T05:48:57Z</time>
      </trkpt>
      <trkpt lat="37.692910" lon="-122.062490">
        <ele>62.196</ele>
        <time>2018-12-29T05:49:17Z</time>
      </trkpt>
      <trkpt lat="37.692900" lon="-122.062510">
        <ele>62.040</ele>
        <time>2018-12-29T05:49:37Z</time>
      </trkpt>
      <trkpt lat="37.692380" lon="-122.064390">
        <ele>57.873</ele>
        <time>2018-12-29T05:49:57Z</time>
      </trkpt>
      <trkpt lat="37.692130" lon="-122.065280">
        <ele>57.337</ele>
        <time>2018-12-29T05:50:17Z</time>
      </trkpt>
      <trkpt lat="37.691910" lon="-122.066050">
        <ele>56.930</ele>
        <time>2018-12-29T05:50:37Z</time>
      </trkpt>
      <trkpt lat="37.691790" lon="-122.066510">
        <ele>55.439</ele>
        <time>2018-12-29T05:50:57Z</time>
      </trkpt>
      <trkpt lat="37.691700" lon="-122.066860">
        <ele>55.501</ele>
        <time>2018-12-29T05:51:17Z</time>
      </trkpt>
      <trkpt lat="37.691630" lon="-122.067140">
        <ele>55.621</ele>
        <time>2018-12-29T05:51:37Z</time>
      </trkpt>
      <trkpt lat="37.691560" lon="-122.067450">
        <ele>55.408</ele>
        <time>2018-12-29T05:51:57Z</time>
      </trkpt>
      <trkpt lat="37.691520" lon="-122.067600">
        <ele>55.426</ele>
        <time>2018-12-29T05:52:17Z</time>
      </trkpt>
      <trkpt lat="37.691490" lon="-122.067750">
        <ele>55.624</ele>
        <time>2018-12-29T05:52:37Z</time>
      </trkpt>
      <trkpt lat="37.691440" lon="-122.067980">
        <ele>55.829</ele>
        <time>2018-12-29T05:52:57Z</time>
      </trkpt>
      <trkpt lat="37.691390" lon="-122.068280">
        <ele>55.718</ele>
        <time>2018-12-29T05:53:17Z</time>
      </trkpt>
      <trkpt lat="37.691370" lon="-122.068380">
        <ele>55.442</ele>
        <time>2018-12-29T05:53:37Z</time>
      </trkpt>
      <trkpt lat="37.691320" lon="-122.068650">
        <ele>55.315</ele>
        <time>2018-12-29T05:53:57Z</time>
      </trkpt>
      <trkpt lat="37.691280" lon="-122.068950">
        <ele>55.859</ele>
        <time>2018-12-29T05:54:17Z</time>
      </trkpt>
      <trkpt lat="37.691230" lon="-122.069230">
        <ele>56.312</ele>
        <time>2018-12-29T05:54:37Z</time>
      </trkpt>
      <trkpt lat="37.691170" lon="-122.069720">
        <ele>56.774</ele>
        <time>2018-12-29T05:54:57Z</time>
      </trkpt>
      <trkpt lat="37.691140" lon="-122.070010">
        <ele>56.456</ele>
        <time>2018-12-29T05:55:17Z</time>
      </trkpt>
      <trkpt lat="37.691120" lon="-122.070200">
        <ele>55.821</ele>
        <time>2018-12-29T05:55:37Z</time>
      </trkpt>
      <trkpt lat="37.691080" lon="-122.070520">
        <ele>54.808</ele>
        <time>2018-12-29T05:55:57Z</time>
      </trkpt>
      <trkpt lat="37.691070" lon="-122.070720">
        <ele>54.640</ele>
        <time>2018-12-29T05:56:17Z</time>
      </trkpt>
      <trkpt lat="37.691040" lon="-122.071020">
        <ele>55.448</ele>
        <time>2018-12-29T05:56:37Z</time>
      </trkpt>
      <trkpt lat="37.691020" lon="-122.071250">
        <ele>56.083</ele>
        <time>2018-12-29T05:56:57Z</time>
      </trkpt>
      <trkpt lat="37.690990" lon="-122.071650">
        <ele>57.122</ele>
        <time>2018-12-29T05:57:17Z</time>
      </trkpt>
      <trkpt lat="37.690990" lon="-122.071750">
        <ele>57.196</ele>
        <time>2018-12-29T05:57:37Z</time>
      </trkpt>
      <trkpt lat="37.690970" lon="-122.072050">
        <ele>57.649</ele>
        <time>2018-12-29T05:57:57Z</time>
      </trkpt>
      <trkpt lat="37.690970" lon="-122.072210">
        <ele>57.543</ele>
        <time>2018-12-29T05:58:17Z</time>
      </trkpt>
      <trkpt lat="37.690960" lon="-122.072420">
        <ele>57.566</ele>
        <time>2018-12-29T05:58:37Z</time>
      </trkpt>
      <trkpt lat="37.690950" lon="-122.072730">
        <ele>57.413</ele>
        <time>2018-12-29T05:58:57Z</time>
      </trkpt>
      <trkpt lat="37.690950" lon="-122.073020">
        <ele>57.243</ele>
        <time>2018-12-29T05:59:17Z</time>
      </trkpt>
      <trkpt lat="37.690950" lon="-122.073690">
        <ele>49.607</ele>
        <time>2018-12-29T05:59:37Z</time>
      </trkpt>
      <trkpt lat="37.690940" lon="-122.074370">
        <ele>56.008</ele>
        <time>2018-12-29T05:59:57Z</time>
      </trkpt>
      <trkpt lat="37.690920" lon="-122.077210">
        <ele>51.464</ele>
        <time>2018-12-29T06:00:17Z</time>
      </trkpt>
      <trkpt lat="37.690920" lon="-122.077920">
        <ele>50.142</ele>
        <time>2018-12-29T06:00:37Z</time>
      </trkpt>
      <trkpt lat="37.690910" lon="-122.078530">
        <ele>49.197</ele>
        <time>2018-12-29T06:00:57Z</time>
      </trkpt>
      <trkpt lat="37.690910" lon="-122.078600">
        <ele>49.036</ele>
        <time>2018-12-29T06:01:17Z</time>
      </trkpt>
      <trkpt lat="37.690900" lon="-122.079360">
        <ele>48.090</ele>
        <time>2018-12-29T06:01:37Z</time>
      </trkpt>
      <trkpt lat="37.690890" lon="-122.080120">
        <ele>47.343</ele>
        <time>2018-12-29T06:01:57Z</time>
      </trkpt>
      <trkpt lat="37.690880" lon="-122.081330">
        <ele>46.927</ele>
        <time>2018-12-29T06:02:17Z</time>
      </trkpt>
      <trkpt lat="37.690870" lon="-122.082250">
        <ele>47.520</ele>
        <time>2018-12-29T06:02:37Z</time>
      </trkpt>
      <trkpt lat="37.690870" lon="-122.083300">
        <ele>48.885</ele>
        <time>2018-12-29T06:02:57Z</time>
      </trkpt>
      <trkpt lat="37.690870" lon="-122.084800">
        <ele>52.189</ele>
        <time>2018-12-29T06:03:17Z</time>
      </trkpt>
      <trkpt lat="37.690860" lon="-122.086420">
        <ele>56.317</ele>
        <time>2018-12-29T06:03:37Z</time>
      </trkpt>
      <trkpt lat="37.690850" lon="-122.088190">
        <ele>59.108</ele>
        <time>2018-12-29T06:03:57Z</time>
      </trkpt>
      <trkpt lat="37.690840" lon="-122.089500">
        <ele>59.521</ele>
        <time>2018-12-29T06:04:17Z</time>
      </trkpt>
      <trkpt lat="37.690840" lon="-122.089930">
        <ele>60.989</ele>
        <time>2018-12-29T06:04:37Z</time>
      </trkpt>
      <trkpt lat="37.690830" lon="-122.090280">
        <ele>61.184</ele>
        <time>2018-12-29T06:04:57Z</time>
      </trkpt>
      <trkpt lat="37.690830" lon="-122.090860">
        <ele>61.133</ele>
        <time>2018-12-29T06:05:17Z</time>
      </trkpt>
      <trkpt lat="37.690810" lon="-122.091380">
        <ele>61.077</ele>
        <time>2018-12-29T06:05:37Z</time>
      </trkpt>
      <trkpt lat="37.690800" lon="-122.091880">
        <ele>60.690</ele>
        <time>2018-12-29T06:05:57Z</time>
      </trkpt>
      <trkpt lat="37.690760" lon="-122.093080">
        <ele>53.244</ele>
        <time>2018-12-29T06:06:17Z</time>
      </trkpt>
      <trkpt lat="37.690761" lon="-122.093082">
        <ele>53.227</ele>
        <time>2018-12-29T06:06:37Z</time>
      </trkpt>
      <trkpt lat="37.690730" lon="-122.094840">
        <ele>54.781</ele>
        <time>2018-12-29T06:06:57Z</time>
      </trkpt>
      <trkpt lat="37.690720" lon="-122.095020">
        <ele>54.261</ele>
        <time>2018-12-29T06:07:17Z</time>
      </trkpt>
      <trkpt lat="37.690690" lon="-122.095750">
        <ele>52.517</ele>
        <time>2018-12-29T06:07:37Z</time>
      </trkpt>
      <trkpt lat="37.690690" lon="-122.095940">
        <ele>52.108</ele>
        <time>2018-12-29T06:07:57Z</time>
      </trkpt>
      <trkpt lat="37.690680" lon="-122.096060">
        <ele>51.951</ele>
        <time>2018-12-29T06:08:17Z</time>
      </trkpt>
      <trkpt lat="37.690690" lon="-122.096360">
        <ele>51.679</ele>
        <time>2018-12-29T06:08:37Z</time>
      </trkpt>
      <trkpt lat="37.690700" lon="-122.096630">
        <ele>51.574</ele>
        <time>2018-12-29T06:08:57Z</time>
      </trkpt>
      <trkpt lat="37.690730" lon="-122.096900">
        <ele>51.593</ele>
        <time>2018-12-29T06:09:17Z</time>
      </trkpt>
      <trkpt lat="37.690760" lon="-122.097160">
        <ele>51.547</ele>
        <time>2018-12-29T06:09:37Z</time>
      </trkpt>
      <trkpt lat="37.690850" lon="-122.097710">
        <ele>50.830</ele>
        <time>2018-12-29T06:09:57Z</time>
      </trkpt>
      <trkpt lat="37.690900" lon="-122.097980">
        <ele>50.174</ele>
        <time>2018-12-29T06:10:17Z</time>
      </trkpt>
      <trkpt lat="37.690960" lon="-122.098240">
        <ele>51.097</ele>
        <time>2018-12-29T06:10:37Z</time>
      </trkpt>
      <trkpt lat="37.691060" lon="-122.098590">
        <ele>52.235</ele>
        <time>2018-12-29T06:10:57Z</time>
      </trkpt>
      <trkpt lat="37.691160" lon="-122.098900">
        <ele>51.986</ele>
        <time>2018-12-29T06:11:17Z</time>
      </trkpt>
      <trkpt lat="37.691300" lon="-122.099280">
        <ele>51.814</ele>
        <time>2018-12-29T06:11:37Z</time>
      </trkpt>
      <trkpt lat="37.691460" lon="-122.099670">
        <ele>51.108</ele>
        <time>2018-12-29T06:11:57Z</time>
      </trkpt>
      <trkpt lat="37.691680" lon="-122.100120">
        <ele>50.916</ele>
        <time>2018-12-29T06:12:17Z</time>
      </trkpt>
      <trkpt lat="37.691790" lon="-122.100330">
        <ele>50.814</ele>
        <time>2018-12-29T06:12:37Z</time>
      </trkpt>
      <trkpt lat="37.691930" lon="-122.100550">
        <ele>50.869</ele>
        <time>2018-12-29T06:12:57Z</time>
      </trkpt>
      <trkpt lat="37.692110" lon="-122.100810">
        <ele>50.348</ele>
        <time>2018-12-29T06:13:17Z</time>
      </trkpt>
      <trkpt lat="37.692670" lon="-122.101560">
        <ele>50.042</ele>
        <time>2018-12-29T06:13:37Z</time>
      </trkpt>
      <trkpt lat="37.692810" lon="-122.101720">
        <ele>50.465</ele>
        <time>2018-12-29T06:13:57Z</time>
      </trkpt>
      <trkpt lat="37.692920" lon="-122.101840">
        <ele>49.739</ele>
        <time>2018-12-29T06:14:17Z</time>
      </trkpt>
      <trkpt lat="37.693120" lon="-122.102030">
        <ele>49.732</ele>
        <time>2018-12-29T06:14:37Z</time>
      </trkpt>
      <trkpt lat="37.693830" lon="-122.102660">
        <ele>48.537</ele>
        <time>2018-12-29T06:14:57Z</time>
      </trkpt>
      <trkpt lat="37.694360" lon="-122.103130">
        <ele>47.649</ele>
        <time>2018-12-29T06:15:17Z</time>
      </trkpt>
      <trkpt lat="37.694480" lon="-122.103240">
        <ele>47.613</ele>
        <time>2018-12-29T06:15:37Z</time>
      </trkpt>
      <trkpt lat="37.695220" lon="-122.103890">
        <ele>44.708</ele>
        <time>2018-12-29T06:15:57Z</time>
      </trkpt>
      <trkpt lat="37.695740" lon="-122.104360">
        <ele>45.876</ele>
        <time>2018-12-29T06:16:17Z</time>
      </trkpt>
      <trkpt lat="37.696070" lon="-122.104660">
        <ele>45.424</ele>
        <time>2018-12-29T06:16:37Z</time>
      </trkpt>
      <trkpt lat="37.696480" lon="-122.105020">
        <ele>45.329</ele>
        <time>2018-12-29T06:16:57Z</time>
      </trkpt>
      <trkpt lat="37.696640" lon="-122.105170">
        <ele>45.518</ele>
        <time>2018-12-29T06:17:17Z</time>
      </trkpt>
      <trkpt lat="37.696790" lon="-122.105300">
        <ele>45.482</ele>
        <time>2018-12-29T06:17:37Z</time>
      </trkpt>
      <trkpt lat="37.697570" lon="-122.105990">
        <ele>44.345</ele>
        <time>2018-12-29T06:17:57Z</time>
      </trkpt>
      <trkpt lat="37.698400" lon="-122.106730">
        <ele>42.749</ele>
        <time>2018-12-29T06:18:17Z</time>
      </trkpt>
      <trkpt lat="37.699150" lon="-122.107400">
        <ele>43.142</ele>
        <time>2018-12-29T06:18:37Z</time>
      </trkpt>
      <trkpt lat="37.699350" lon="-122.107590">
        <ele>43.213</ele>
        <time>2018-12-29T06:18:57Z</time>
      </trkpt>
      <trkpt lat="37.699560" lon="-122.107790">
        <ele>43.143</ele>
        <time>2018-12-29T06:19:17Z</time>
      </trkpt>
      <trkpt lat="37.700080" lon="-122.108360">
        <ele>36.707</ele>
        <time>2018-12-29T06:19:37Z</time>
      </trkpt>
      <trkpt lat="37.700180" lon="-122.108460">
        <ele>38.708</ele>
        <time>2018-12-29T06:19:57Z</time>
      </trkpt>
      <trkpt lat="37.700350" lon="-122.108680">
        <ele>41.244</ele>
        <time>2018-12-29T06:20:17Z</time>
      </trkpt>
      <trkpt lat="37.700520" lon="-122.108900">
        <ele>40.752</ele>
        <time>2018-12-29T06:20:37Z</time>
      </trkpt>
      <trkpt lat="37.700940" lon="-122.109480">
        <ele>40.127</ele>
        <time>2018-12-29T06:20:57Z</time>
      </trkpt>
      <trkpt lat="37.701330" lon="-122.110060">
        <ele>38.016</ele>
        <time>2018-12-29T06:21:17Z</time>
      </trkpt>
      <trkpt lat="37.703500" lon="-122.113610">
        <ele>33.480</ele>
        <time>2018-12-29T06:21:37Z</time>
      </trkpt>
      <trkpt lat="37.703920" lon="-122.114300">
        <ele>32.783</ele>
        <time>2018-12-29T06:21:57Z</time>
      </trkpt>
      <trkpt lat="37.704210" lon="-122.114770">
        <ele>33.027</ele>
        <time>2018-12-29T06:22:17Z</time>
      </trkpt>
      <trkpt lat="37.704390" lon="-122.115060">
        <ele>32.710</ele>
        <time>2018-12-29T06:22:37Z</time>
      </trkpt>
      <trkpt lat="37.704670" lon="-122.115530">
        <ele>32.288</ele>
        <time>2018-12-29T06:22:57Z</time>
      </trkpt>
      <trkpt lat="37.705260" lon="-122.116580">
        <ele>29.324</ele>
        <time>2018-12-29T06:23:17Z</time>
      </trkpt>
      <trkpt lat="37.705280" lon="-122.116640">
        <ele>29.226</ele>
        <time>2018-12-29T06:23:37Z</time>
      </trkpt>
      <trkpt lat="37.705290" lon="-122.116650">
        <ele>29.208</ele>
        <time>2018-12-29T06:23:57Z</time>
      </trkpt>
      <trkpt lat="37.705560" lon="-122.117160">
        <ele>27.851</ele>
        <time>2018-12-29T06:24:17Z</time>
      </trkpt>
      <trkpt lat="37.705810" lon="-122.117690">
        <ele>26.369</ele>
        <time>2018-12-29T06:24:37Z</time>
      </trkpt>
      <trkpt lat="37.705960" lon="-122.118000">
        <ele>25.234</ele>
        <time>2018-12-29T06:24:57Z</time>
      </trkpt>
      <trkpt lat="37.706330" lon="-122.118800">
        <ele>23.213</ele>
        <time>2018-12-29T06:25:17Z</time>
      </trkpt>
      <trkpt lat="37.706900" lon="-122.120100">
        <ele>18.897</ele>
        <time>2018-12-29T06:25:37Z</time>
      </trkpt>
      <trkpt lat="37.707090" lon="-122.120530">
        <ele>16.930</ele>
        <time>2018-12-29T06:25:57Z</time>
      </trkpt>
      <trkpt lat="37.707400" lon="-122.121110">
        <ele>15.654</ele>
        <time>2018-12-29T06:26:17Z</time>
      </trkpt>
      <trkpt lat="37.707670" lon="-122.121510">
        <ele>14.117</ele>
        <time>2018-12-29T06:26:37Z</time>
      </trkpt>
      <trkpt lat="37.708100" lon="-122.122080">
        <ele>12.548</ele>
        <time>2018-12-29T06:26:57Z</time>
      </trkpt>
      <trkpt lat="37.708470" lon="-122.122580">
        <ele>11.961</ele>
        <time>2018-12-29T06:27:17Z</time>
      </trkpt>
      <trkpt lat="37.708570" lon="-122.122690">
        <ele>12.117</ele>
        <time>2018-12-29T06:27:37Z</time>
      </trkpt>
      <trkpt lat="37.708570" lon="-122.122700">
        <ele>12.108</ele>
        <time>2018-12-29T06:27:57Z</time>
      </trkpt>
      <trkpt lat="37.708660" lon="-122.122810">
        <ele>12.197</ele>
        <time>2018-12-29T06:28:17Z</time>
      </trkpt>
      <trkpt lat="37.709020" lon="-122.123250">
        <ele>12.195</ele>
        <time>2018-12-29T06:28:37Z</time>
      </trkpt>
      <trkpt lat="37.709650" lon="-122.124050">
        <ele>14.050</ele>
        <time>2018-12-29T06:28:57Z</time>
      </trkpt>
      <trkpt lat="37.709840" lon="-122.124300">
        <ele>13.349</ele>
        <time>2018-12-29T06:29:17Z</time>
      </trkpt>
      <trkpt lat="37.709840" lon="-122.124310">
        <ele>13.233</ele>
        <time>2018-12-29T06:29:37Z</time>
      </trkpt>
      <trkpt lat="37.710040" lon="-122.124570">
        <ele>13.986</ele>
        <time>2018-12-29T06:29:57Z</time>
      </trkpt>
      <trkpt lat="37.710530" lon="-122.125320">
        <ele>15.510</ele>
        <time>2018-12-29T06:30:17Z</time>
      </trkpt>
      <trkpt lat="37.711310" lon="-122.126830">
        <ele>19.663</ele>
        <time>2018-12-29T06:30:37Z</time>
      </trkpt>
      <trkpt lat="37.711620" lon="-122.127470">
        <ele>21.265</ele>
        <time>2018-12-29T06:30:57Z</time>
      </trkpt>
      <trkpt lat="37.711920" lon="-122.128050">
        <ele>22.168</ele>
        <time>2018-12-29T06:31:17Z</time>
      </trkpt>
      <trkpt lat="37.712150" lon="-122.128420">
        <ele>23.314</ele>
        <time>2018-12-29T06:31:37Z</time>
      </trkpt>
      <trkpt lat="37.712300" lon="-122.128660">
        <ele>23.108</ele>
        <time>2018-12-29T06:31:57Z</time>
      </trkpt>
      <trkpt lat="37.712490" lon="-122.128950">
        <ele>23.329</ele>
        <time>2018-12-29T06:32:17Z</time>
      </trkpt>
      <trkpt lat="37.712770" lon="-122.129320">
        <ele>23.887</ele>
        <time>2018-12-29T06:32:37Z</time>
      </trkpt>
      <trkpt lat="37.712940" lon="-122.129520">
        <ele>24.672</ele>
        <time>2018-12-29T06:32:57Z</time>
      </trkpt>
      <trkpt lat="37.713080" lon="-122.129700">
        <ele>24.561</ele>
        <time>2018-12-29T06:33:17Z</time>
      </trkpt>
      <trkpt lat="37.713240" lon="-122.129870">
        <ele>24.845</ele>
        <time>2018-12-29T06:33:37Z</time>
      </trkpt>
      <trkpt lat="37.713400" lon="-122.130040">
        <ele>24.628</ele>
        <time>2018-12-29T06:33:57Z</time>
      </trkpt>
      <trkpt lat="37.713560" lon="-122.130200">
        <ele>24.662</ele>
        <time>2018-12-29T06:34:17Z</time>
      </trkpt>
      <trkpt lat="37.713710" lon="-122.130340">
        <ele>24.855</ele>
        <time>2018-12-29T06:34:37Z</time>
      </trkpt>
      <trkpt lat="37.713790" lon="-122.130410">
        <ele>24.953</ele>
        <time>2018-12-29T06:34:57Z</time>
      </trkpt>
      <trkpt lat="37.713950" lon="-122.130550">
        <ele>24.704</ele>
        <time>2018-12-29T06:35:17Z</time>
      </trkpt>
      <trkpt lat="37.714200" lon="-122.130770">
        <ele>24.514</ele>
        <time>2018-12-29T06:35:37Z</time>
      </trkpt>
      <trkpt lat="37.714390" lon="-122.130910">
        <ele>25.108</ele>
        <time>2018-12-29T06:35:57Z</time>
      </trkpt>
      <trkpt lat="37.714610" lon="-122.131070">
        <ele>24.268</ele>
        <time>2018-12-29T06:36:17Z</time>
      </trkpt>
      <trkpt lat="37.714870" lon="-122.131250">
        <ele>25.046</ele>
        <time>2018-12-29T06:36:37Z</time>
      </trkpt>
      <trkpt lat="37.715090" lon="-122.131380">
        <ele>24.611</ele>
        <time>2018-12-29T06:36:57Z</time>
      </trkpt>
      <trkpt lat="37.715290" lon="-122.131490">
        <ele>25.120</ele>
        <time>2018-12-29T06:37:17Z</time>
      </trkpt>
      <trkpt lat="37.715550" lon="-122.131630">
        <ele>24.784</ele>
        <time>2018-12-29T06:37:37Z</time>
      </trkpt>
      <trkpt lat="37.715900" lon="-122.131800">
        <ele>25.137</ele>
        <time>2018-12-29T06:37:57Z</time>
      </trkpt>
      <trkpt lat="37.716660" lon="-122.132160">
        <ele>23.911</ele>
        <time>2018-12-29T06:38:17Z</time>
      </trkpt>
      <trkpt lat="37.717640" lon="-122.132640">
        <ele>24.884</ele>
        <time>2018-12-29T06:38:37Z</time>
      </trkpt>
      <trkpt lat="37.718170" lon="-122.132900">
        <ele>26.345</ele>
        <time>2018-12-29T06:38:57Z</time>
      </trkpt>
      <trkpt lat="37.718830" lon="-122.133240">
        <ele>27.647</ele>
        <time>2018-12-29T06:39:17Z</time>
      </trkpt>
      <trkpt lat="37.719050" lon="-122.133350">
        <ele>28.411</ele>
        <time>2018-12-29T06:39:37Z</time>
      </trkpt>
      <trkpt lat="37.719290" lon="-122.133500">
        <ele>28.408</ele>
        <time>2018-12-29T06:39:57Z</time>
      </trkpt>
      <trkpt lat="37.719540" lon="-122.133640">
        <ele>29.497</ele>
        <time>2018-12-29T06:40:17Z</time>
      </trkpt>
      <trkpt lat="37.719760" lon="-122.133770">
        <ele>28.845</ele>
        <time>2018-12-29T06:40:37Z</time>
      </trkpt>
      <trkpt lat="37.720010" lon="-122.133940">
        <ele>29.710</ele>
        <time>2018-12-29T06:40:57Z</time>
      </trkpt>
      <trkpt lat="37.720320" lon="-122.134150">
        <ele>29.249</ele>
        <time>2018-12-29T06:41:17Z</time>
      </trkpt>
      <trkpt lat="37.720460" lon="-122.134240">
        <ele>29.293</ele>
        <time>2018-12-29T06:41:37Z</time>
      </trkpt>
      <trkpt lat="37.720660" lon="-122.134380">
        <ele>28.516</ele>
        <time>2018-12-29T06:41:57Z</time>
      </trkpt>
      <trkpt lat="37.720820" lon="-122.134490">
        <ele>29.020</ele>
        <time>2018-12-29T06:42:17Z</time>
      </trkpt>
      <trkpt lat="37.720940" lon="-122.134570">
        <ele>28.393</ele>
        <time>2018-12-29T06:42:37Z</time>
      </trkpt>
      <trkpt lat="37.721190" lon="-122.134760">
        <ele>28.129</ele>
        <time>2018-12-29T06:42:57Z</time>
      </trkpt>
      <trkpt lat="37.721530" lon="-122.135010">
        <ele>26.600</ele>
        <time>2018-12-29T06:43:17Z</time>
      </trkpt>
      <trkpt lat="37.721640" lon="-122.135100">
        <ele>26.420</ele>
        <time>2018-12-29T06:43:37Z</time>
      </trkpt>
      <trkpt lat="37.722260" lon="-122.135580">
        <ele>24.808</ele>
        <time>2018-12-29T06:43:57Z</time>
      </trkpt>
      <trkpt lat="37.722590" lon="-122.135840">
        <ele>24.045</ele>
        <time>2018-12-29T06:44:17Z</time>
      </trkpt>
      <trkpt lat="37.722840" lon="-122.136030">
        <ele>23.543</ele>
        <time>2018-12-29T06:44:37Z</time>
      </trkpt>
      <trkpt lat="37.723210" lon="-122.136320">
        <ele>23.778</ele>
        <time>2018-12-29T06:44:57Z</time>
      </trkpt>
      <trkpt lat="37.723390" lon="-122.136460">
        <ele>23.777</ele>
        <time>2018-12-29T06:45:17Z</time>
      </trkpt>
      <trkpt lat="37.723620" lon="-122.136630">
        <ele>23.621</ele>
        <time>2018-12-29T06:45:37Z</time>
      </trkpt>
      <trkpt lat="37.723950" lon="-122.136860">
        <ele>23.924</ele>
        <time>2018-12-29T06:45:57Z</time>
      </trkpt>
      <trkpt lat="37.724150" lon="-122.136990">
        <ele>24.568</ele>
        <time>2018-12-29T06:46:17Z</time>
      </trkpt>
      <trkpt lat="37.724450" lon="-122.137170">
        <ele>25.221</ele>
        <time>2018-12-29T06:46:37Z</time>
      </trkpt>
      <trkpt lat="37.724540" lon="-122.137220">
        <ele>25.576</ele>
        <time>2018-12-29T06:46:57Z</time>
      </trkpt>
      <trkpt lat="37.724770" lon="-122.137320">
        <ele>26.490</ele>
        <time>2018-12-29T06:47:17Z</time>
      </trkpt>
      <trkpt lat="37.724940" lon="-122.137390">
        <ele>26.819</ele>
        <time>2018-12-29T06:47:37Z</time>
      </trkpt>
      <trkpt lat="37.725030" lon="-122.137430">
        <ele>27.108</ele>
        <time>2018-12-29T06:47:57Z</time>
      </trkpt>
      <trkpt lat="37.725150" lon="-122.137470">
        <ele>27.540</ele>
        <time>2018-12-29T06:48:17Z</time>
      </trkpt>
      <trkpt lat="37.725230" lon="-122.137490">
        <ele>27.818</ele>
        <time>2018-12-29T06:48:37Z</time>
      </trkpt>
      <trkpt lat="37.725350" lon="-122.137520">
        <ele>28.213</ele>
        <time>2018-12-29T06:48:57Z</time>
      </trkpt>
      <trkpt lat="37.725550" lon="-122.137570">
        <ele>29.012</ele>
        <time>2018-12-29T06:49:17Z</time>
      </trkpt>
      <trkpt lat="37.725830" lon="-122.137640">
        <ele>29.336</ele>
        <time>2018-12-29T06:49:37Z</time>
      </trkpt>
      <trkpt lat="37.726080" lon="-122.137700">
        <ele>29.999</ele>
        <time>2018-12-29T06:49:57Z</time>
      </trkpt>
      <trkpt lat="37.726890" lon="-122.137830">
        <ele>31.443</ele>
        <time>2018-12-29T06:50:17Z</time>
      </trkpt>
      <trkpt lat="37.727730" lon="-122.137950">
        <ele>33.426</ele>
        <time>2018-12-29T06:50:37Z</time>
      </trkpt>
      <trkpt lat="37.728170" lon="-122.137990">
        <ele>31.165</ele>
        <time>2018-12-29T06:50:57Z</time>
      </trkpt>
      <trkpt lat="37.728420" lon="-122.138060">
        <ele>31.868</ele>
        <time>2018-12-29T06:51:17Z</time>
      </trkpt>
      <trkpt lat="37.728440" lon="-122.138060">
        <ele>31.814</ele>
        <time>2018-12-29T06:51:37Z</time>
      </trkpt>
      <trkpt lat="37.729310" lon="-122.138250">
        <ele>34.408</ele>
        <time>2018-12-29T06:51:57Z</time>
      </trkpt>
      <trkpt lat="37.729590" lon="-122.138320">
        <ele>33.549</ele>
        <time>2018-12-29T06:52:17Z</time>
      </trkpt>
      <trkpt lat="37.729780" lon="-122.138370">
        <ele>29.717</ele>
        <time>2018-12-29T06:52:37Z</time>
      </trkpt>
      <trkpt lat="37.729810" lon="-122.138380">
        <ele>29.152</ele>
        <time>2018-12-29T06:52:57Z</time>
      </trkpt>
      <trkpt lat="37.729970" lon="-122.138430">
        <ele>30.131</ele>
        <time>2018-12-29T06:53:17Z</time>
      </trkpt>
      <trkpt lat="37.730640" lon="-122.138630">
        <ele>26.985</ele>
        <time>2018-12-29T06:53:37Z</time>
      </trkpt>
      <trkpt lat="37.731080" lon="-122.138780">
        <ele>27.418</ele>
        <time>2018-12-29T06:53:57Z</time>
      </trkpt>
      <trkpt lat="37.731270" lon="-122.138830">
        <ele>33.572</ele>
        <time>2018-12-29T06:54:17Z</time>
      </trkpt>
      <trkpt lat="37.731720" lon="-122.138950">
        <ele>33.625</ele>
        <time>2018-12-29T06:54:37Z</time>
      </trkpt>
      <trkpt lat="37.731990" lon="-122.139030">
        <ele>33.438</ele>
        <time>2018-12-29T06:54:57Z</time>
      </trkpt>
      <trkpt lat="37.733010" lon="-122.139310">
        <ele>33.370</ele>
        <time>2018-12-29T06:55:17Z</time>
      </trkpt>
      <trkpt lat="37.733480" lon="-122.139410">
        <ele>33.217</ele>
        <time>2018-12-29T06:55:37Z</time>
      </trkpt>
      <trkpt lat="37.734320" lon="-122.139590">
        <ele>33.008</ele>
        <time>2018-12-29T06:55:57Z</time>
      </trkpt>
      <trkpt lat="37.734470" lon="-122.139620">
        <ele>29.746</ele>
        <time>2018-12-29T06:56:17Z</time>
      </trkpt>
      <trkpt lat="37.734560" lon="-122.139640">
        <ele>27.824</ele>
        <time>2018-12-29T06:56:37Z</time>
      </trkpt>
      <trkpt lat="37.734610" lon="-122.139650">
        <ele>27.949</ele>
        <time>2018-12-29T06:56:57Z</time>
      </trkpt>
      <trkpt lat="37.735250" lon="-122.139820">
        <ele>34.578</ele>
        <time>2018-12-29T06:57:17Z</time>
      </trkpt>
      <trkpt lat="37.735600" lon="-122.139920">
        <ele>35.462</ele>
        <time>2018-12-29T06:57:37Z</time>
      </trkpt>
      <trkpt lat="37.735760" lon="-122.139950">
        <ele>35.795</ele>
        <time>2018-12-29T06:57:57Z</time>
      </trkpt>
      <trkpt lat="37.736120" lon="-122.140020">
        <ele>36.139</ele>
        <time>2018-12-29T06:58:17Z</time>
      </trkpt>
      <trkpt lat="37.736390" lon="-122.140110">
        <ele>36.792</ele>
        <time>2018-12-29T06:58:37Z</time>
      </trkpt>
      <trkpt lat="37.736670" lon="-122.140210">
        <ele>37.427</ele>
        <time>2018-12-29T06:58:57Z</time>
      </trkpt>
      <trkpt lat="37.736900" lon="-122.140320">
        <ele>37.168</ele>
        <time>2018-12-29T06:59:17Z</time>
      </trkpt>
      <trkpt lat="37.737020" lon="-122.140380">
        <ele>37.414</ele>
        <time>2018-12-29T06:59:37Z</time>
      </trkpt>
      <trkpt lat="37.737190" lon="-122.140470">
        <ele>36.908</ele>
        <time>2018-12-29T06:59:57Z</time>
      </trkpt>
      <trkpt lat="37.737390" lon="-122.140580">
        <ele>36.415</ele>
        <time>2018-12-29T07:00:17Z</time>
      </trkpt>
      <trkpt lat="37.737500" lon="-122.140650">
        <ele>35.373</ele>
        <time>2018-12-29T07:00:37Z</time>
      </trkpt>
      <trkpt lat="37.737550" lon="-122.140680">
        <ele>34.558</ele>
        <time>2018-12-29T07:00:57Z</time>
      </trkpt>
      <trkpt lat="37.737620" lon="-122.140740">
        <ele>32.967</ele>
        <time>2018-12-29T07:01:17Z</time>
      </trkpt>
      <trkpt lat="37.737630" lon="-122.140750">
        <ele>32.691</ele>
        <time>2018-12-29T07:01:37Z</time>
      </trkpt>
      <trkpt lat="37.737760" lon="-122.140860">
        <ele>34.594</ele>
        <time>2018-12-29T07:01:57Z</time>
      </trkpt>
      <trkpt lat="37.737930" lon="-122.141010">
        <ele>38.548</ele>
        <time>2018-12-29T07:02:17Z</time>
      </trkpt>
      <trkpt lat="37.738030" lon="-122.141090">
        <ele>38.231</ele>
        <time>2018-12-29T07:02:37Z</time>
      </trkpt>
      <trkpt lat="37.738130" lon="-122.141190">
        <ele>38.216</ele>
        <time>2018-12-29T07:02:57Z</time>
      </trkpt>
      <trkpt lat="37.738220" lon="-122.141280">
        <ele>38.376</ele>
        <time>2018-12-29T07:03:17Z</time>
      </trkpt>
      <trkpt lat="37.738340" lon="-122.141400">
        <ele>37.913</ele>
        <time>2018-12-29T07:03:37Z</time>
      </trkpt>
      <trkpt lat="37.738440" lon="-122.141510">
        <ele>37.908</ele>
        <time>2018-12-29T07:03:57Z</time>
      </trkpt>
      <trkpt lat="37.738790" lon="-122.141930">
        <ele>37.284</ele>
        <time>2018-12-29T07:04:17Z</time>
      </trkpt>
      <trkpt lat="37.739490" lon="-122.142820">
        <ele>33.772</ele>
        <time>2018-12-29T07:04:37Z</time>
      </trkpt>
      <trkpt lat="37.739860" lon="-122.143300">
        <ele>31.337</ele>
        <time>2018-12-29T07:04:57Z</time>
      </trkpt>
      <trkpt lat="37.740000" lon="-122.143460">
        <ele>30.686</ele>
        <time>2018-12-29T07:05:17Z</time>
      </trkpt>
      <trkpt lat="37.740100" lon="-122.143570">
        <ele>30.110</ele>
        <time>2018-12-29T07:05:37Z</time>
      </trkpt>
      <trkpt lat="37.740330" lon="-122.143800">
        <ele>29.433</ele>
        <time>2018-12-29T07:05:57Z</time>
      </trkpt>
      <trkpt lat="37.740500" lon="-122.143950">
        <ele>29.787</ele>
        <time>2018-12-29T07:06:17Z</time>
      </trkpt>
      <trkpt lat="37.740740" lon="-122.144150">
        <ele>29.120</ele>
        <time>2018-12-29T07:06:37Z</time>
      </trkpt>
      <trkpt lat="37.740890" lon="-122.144270">
        <ele>29.254</ele>
        <time>2018-12-29T07:06:57Z</time>
      </trkpt>
      <trkpt lat="37.741360" lon="-122.144610">
        <ele>29.156</ele>
        <time>2018-12-29T07:07:17Z</time>
      </trkpt>
      <trkpt lat="37.741910" lon="-122.145010">
        <ele>30.011</ele>
        <time>2018-12-29T07:07:37Z</time>
      </trkpt>
      <trkpt lat="37.742260" lon="-122.145280">
        <ele>31.008</ele>
        <time>2018-12-29T07:07:57Z</time>
      </trkpt>
      <trkpt lat="37.742440" lon="-122.145430">
        <ele>30.988</ele>
        <time>2018-12-29T07:08:17Z</time>
      </trkpt>
      <trkpt lat="37.742670" lon="-122.145650">
        <ele>31.296</ele>
        <time>2018-12-29T07:08:37Z</time>
      </trkpt>
      <trkpt lat="37.742880" lon="-122.145860">
        <ele>31.241</ele>
        <time>2018-12-29T07:08:57Z</time>
      </trkpt>
      <trkpt lat="37.743080" lon="-122.146080">
        <ele>31.350</ele>
        <time>2018-12-29T07:09:17Z</time>
      </trkpt>
      <trkpt lat="37.743310" lon="-122.146380">
        <ele>31.574</ele>
        <time>2018-12-29T07:09:37Z</time>
      </trkpt>
      <trkpt lat="37.743550" lon="-122.146700">
        <ele>32.327</ele>
        <time>2018-12-29T07:09:57Z</time>
      </trkpt>
      <trkpt lat="37.743570" lon="-122.146720">
        <ele>32.471</ele>
        <time>2018-12-29T07:10:17Z</time>
      </trkpt>
      <trkpt lat="37.744030" lon="-122.147370">
        <ele>34.874</ele>
        <time>2018-12-29T07:10:37Z</time>
      </trkpt>
      <trkpt lat="37.744190" lon="-122.147590">
        <ele>35.613</ele>
        <time>2018-12-29T07:10:57Z</time>
      </trkpt>
      <trkpt lat="37.744510" lon="-122.148010">
        <ele>37.443</ele>
        <time>2018-12-29T07:11:17Z</time>
      </trkpt>
      <trkpt lat="37.744660" lon="-122.148180">
        <ele>38.107</ele>
        <time>2018-12-29T07:11:37Z</time>
      </trkpt>
      <trkpt lat="37.744750" lon="-122.148280">
        <ele>38.508</ele>
        <time>2018-12-29T07:11:57Z</time>
      </trkpt>
      <trkpt lat="37.744960" lon="-122.148490">
        <ele>37.624</ele>
        <time>2018-12-29T07:12:17Z</time>
      </trkpt>
      <trkpt lat="37.745240" lon="-122.148720">
        <ele>34.842</ele>
        <time>2018-12-29T07:12:37Z</time>
      </trkpt>
      <trkpt lat="37.745520" lon="-122.148960">
        <ele>40.727</ele>
        <time>2018-12-29T07:12:57Z</time>
      </trkpt>
      <trkpt lat="37.745860" lon="-122.149170">
        <ele>41.216</ele>
        <time>2018-12-29T07:13:17Z</time>
      </trkpt>
      <trkpt lat="37.746050" lon="-122.149290">
        <ele>41.980</ele>
        <time>2018-12-29T07:13:37Z</time>
      </trkpt>
      <trkpt lat="37.747130" lon="-122.149840">
        <ele>43.113</ele>
        <time>2018-12-29T07:13:57Z</time>
      </trkpt>
      <trkpt lat="37.747910" lon="-122.150230">
        <ele>43.947</ele>
        <time>2018-12-29T07:14:17Z</time>
      </trkpt>
      <trkpt lat="37.748140" lon="-122.150340">
        <ele>44.670</ele>
        <time>2018-12-29T07:14:37Z</time>
      </trkpt>
      <trkpt lat="37.749950" lon="-122.151230">
        <ele>50.547</ele>
        <time>2018-12-29T07:14:57Z</time>
      </trkpt>
      <trkpt lat="37.750350" lon="-122.151420">
        <ele>51.829</ele>
        <time>2018-12-29T07:15:17Z</time>
      </trkpt>
      <trkpt lat="37.750580" lon="-122.151510">
        <ele>52.221</ele>
        <time>2018-12-29T07:15:37Z</time>
      </trkpt>
      <trkpt lat="37.750680" lon="-122.151550">
        <ele>52.108</ele>
        <time>2018-12-29T07:15:57Z</time>
      </trkpt>
      <trkpt lat="37.750710" lon="-122.151560">
        <ele>52.287</ele>
        <time>2018-12-29T07:16:17Z</time>
      </trkpt>
      <trkpt lat="37.750780" lon="-122.151580">
        <ele>52.455</ele>
        <time>2018-12-29T07:16:37Z</time>
      </trkpt>
      <trkpt lat="37.750890" lon="-122.151610">
        <ele>52.730</ele>
        <time>2018-12-29T07:16:57Z</time>
      </trkpt>
      <trkpt lat="37.751010" lon="-122.151640">
        <ele>53.069</ele>
        <time>2018-12-29T07:17:17Z</time>
      </trkpt>
      <trkpt lat="37.751160" lon="-122.151670">
        <ele>53.463</ele>
        <time>2018-12-29T07:17:37Z</time>
      </trkpt>
      <trkpt lat="37.751300" lon="-122.151700">
        <ele>53.736</ele>
        <time>2018-12-29T07:17:57Z</time>
      </trkpt>
      <trkpt lat="37.751490" lon="-122.151720">
        <ele>54.080</ele>
        <time>2018-12-29T07:18:17Z</time>
      </trkpt>
      <trkpt lat="37.751700" lon="-122.151730">
        <ele>54.373</ele>
        <time>2018-12-29T07:18:37Z</time>
      </trkpt>
      <trkpt lat="37.751880" lon="-122.151730">
        <ele>54.631</ele>
        <time>2018-12-29T07:18:57Z</time>
      </trkpt>
      <trkpt lat="37.752100" lon="-122.151720">
        <ele>54.961</ele>
        <time>2018-12-29T07:19:17Z</time>
      </trkpt>
      <trkpt lat="37.752260" lon="-122.151700">
        <ele>55.107</ele>
        <time>2018-12-29T07:19:37Z</time>
      </trkpt>
      <trkpt lat="37.752480" lon="-122.151660">
        <ele>55.308</ele>
        <time>2018-12-29T07:19:57Z</time>
      </trkpt>
      <trkpt lat="37.752670" lon="-122.151630">
        <ele>55.566</ele>
        <time>2018-12-29T07:20:17Z</time>
      </trkpt>
      <trkpt lat="37.752850" lon="-122.151570">
        <ele>55.654</ele>
        <time>2018-12-29T07:20:37Z</time>
      </trkpt>
      <trkpt lat="37.753070" lon="-122.151500">
        <ele>55.699</ele>
        <time>2018-12-29T07:20:57Z</time>
      </trkpt>
      <trkpt lat="37.753180" lon="-122.151450">
        <ele>55.688</ele>
        <time>2018-12-29T07:21:17Z</time>
      </trkpt>
      <trkpt lat="37.753480" lon="-122.151300">
        <ele>53.462</ele>
        <time>2018-12-29T07:21:37Z</time>
      </trkpt>
      <trkpt lat="37.753650" lon="-122.151210">
        <ele>49.895</ele>
        <time>2018-12-29T07:21:57Z</time>
      </trkpt>
      <trkpt lat="37.753820" lon="-122.151100">
        <ele>51.499</ele>
        <time>2018-12-29T07:22:17Z</time>
      </trkpt>
      <trkpt lat="37.753900" lon="-122.151030">
        <ele>53.662</ele>
        <time>2018-12-29T07:22:37Z</time>
      </trkpt>
      <trkpt lat="37.754090" lon="-122.150880">
        <ele>55.891</ele>
        <time>2018-12-29T07:22:57Z</time>
      </trkpt>
      <trkpt lat="37.754220" lon="-122.150760">
        <ele>55.981</ele>
        <time>2018-12-29T07:23:17Z</time>
      </trkpt>
      <trkpt lat="37.754410" lon="-122.150590">
        <ele>56.219</ele>
        <time>2018-12-29T07:23:37Z</time>
      </trkpt>
      <trkpt lat="37.754610" lon="-122.150370">
        <ele>56.708</ele>
        <time>2018-12-29T07:23:57Z</time>
      </trkpt>
      <trkpt lat="37.754790" lon="-122.150180">
        <ele>57.492</ele>
        <time>2018-12-29T07:24:17Z</time>
      </trkpt>
      <trkpt lat="37.755090" lon="-122.149850">
        <ele>58.580</ele>
        <time>2018-12-29T07:24:37Z</time>
      </trkpt>
      <trkpt lat="37.755710" lon="-122.149190">
        <ele>61.875</ele>
        <time>2018-12-29T07:24:57Z</time>
      </trkpt>
      <trkpt lat="37.755870" lon="-122.149010">
        <ele>62.544</ele>
        <time>2018-12-29T07:25:17Z</time>
      </trkpt>
      <trkpt lat="37.756200" lon="-122.148720">
        <ele>63.848</ele>
        <time>2018-12-29T07:25:37Z</time>
      </trkpt>
      <trkpt lat="37.756450" lon="-122.148520">
        <ele>64.741</ele>
        <time>2018-12-29T07:25:57Z</time>
      </trkpt>
      <trkpt lat="37.756710" lon="-122.148320">
        <ele>65.875</ele>
        <time>2018-12-29T07:26:17Z</time>
      </trkpt>
      <trkpt lat="37.756740" lon="-122.148310">
        <ele>65.868</ele>
        <time>2018-12-29T07:26:37Z</time>
      </trkpt>
      <trkpt lat="37.756980" lon="-122.148180">
        <ele>66.436</ele>
        <time>2018-12-29T07:26:57Z</time>
      </trkpt>
      <trkpt lat="37.757400" lon="-122.147990">
        <ele>67.317</ele>
        <time>2018-12-29T07:27:17Z</time>
      </trkpt>
      <trkpt lat="37.757780" lon="-122.147860">
        <ele>67.818</ele>
        <time>2018-12-29T07:27:37Z</time>
      </trkpt>
      <trkpt lat="37.758130" lon="-122.147780">
        <ele>68.508</ele>
        <time>2018-12-29T07:27:57Z</time>
      </trkpt>
      <trkpt lat="37.758530" lon="-122.147740">
        <ele>69.076</ele>
        <time>2018-12-29T07:28:17Z</time>
      </trkpt>
      <trkpt lat="37.759070" lon="-122.147750">
        <ele>69.484</ele>
        <time>2018-12-29T07:28:37Z</time>
      </trkpt>
      <trkpt lat="37.759570" lon="-122.147840">
        <ele>69.469</ele>
        <time>2018-12-29T07:28:57Z</time>
      </trkpt>
      <trkpt lat="37.759990" lon="-122.147960">
        <ele>70.178</ele>
        <time>2018-12-29T07:29:17Z</time>
      </trkpt>
      <trkpt lat="37.760550" lon="-122.148190">
        <ele>71.352</ele>
        <time>2018-12-29T07:29:37Z</time>
      </trkpt>
      <trkpt lat="37.761030" lon="-122.148430">
        <ele>73.045</ele>
        <time>2018-12-29T07:29:57Z</time>
      </trkpt>
      <trkpt lat="37.762260" lon="-122.149200">
        <ele>78.949</ele>
        <time>2018-12-29T07:30:17Z</time>
      </trkpt>
      <trkpt lat="37.762870" lon="-122.149630">
        <ele>82.132</ele>
        <time>2018-12-29T07:30:37Z</time>
      </trkpt>
      <trkpt lat="37.763810" lon="-122.150270">
        <ele>86.988</ele>
        <time>2018-12-29T07:30:57Z</time>
      </trkpt>
      <trkpt lat="37.764480" lon="-122.150770">
        <ele>89.424</ele>
        <time>2018-12-29T07:31:17Z</time>
      </trkpt>
      <trkpt lat="37.765400" lon="-122.151580">
        <ele>91.026</ele>
        <time>2018-12-29T07:31:37Z</time>
      </trkpt>
      <trkpt lat="37.766260" lon="-122.152230">
        <ele>90.908</ele>
        <time>2018-12-29T07:31:57Z</time>
      </trkpt>
      <trkpt lat="37.767390" lon="-122.152920">
        <ele>90.251</ele>
        <time>2018-12-29T07:32:17Z</time>
      </trkpt>
      <trkpt lat="37.767950" lon="-122.153280">
        <ele>89.999</ele>
        <time>2018-12-29T07:32:37Z</time>
      </trkpt>
      <trkpt lat="37.768690" lon="-122.153710">
        <ele>89.864</ele>
        <time>2018-12-29T07:32:57Z</time>
      </trkpt>
      <trkpt lat="37.768950" lon="-122.153850">
        <ele>89.883</ele>
        <time>2018-12-29T07:33:17Z</time>
      </trkpt>
      <trkpt lat="37.769420" lon="-122.154150">
        <ele>90.317</ele>
        <time>2018-12-29T07:33:37Z</time>
      </trkpt>
      <trkpt lat="37.769610" lon="-122.154260">
        <ele>90.480</ele>
        <time>2018-12-29T07:33:57Z</time>
      </trkpt>
      <trkpt lat="37.769980" lon="-122.154510">
        <ele>90.684</ele>
        <time>2018-12-29T07:34:17Z</time>
      </trkpt>
      <trkpt lat="37.770230" lon="-122.154670">
        <ele>90.677</ele>
        <time>2018-12-29T07:34:37Z</time>
      </trkpt>
      <trkpt lat="37.770650" lon="-122.155000">
        <ele>90.713</ele>
        <time>2018-12-29T07:34:57Z</time>
      </trkpt>
      <trkpt lat="37.770960" lon="-122.155230">
        <ele>90.943</ele>
        <time>2018-12-29T07:35:17Z</time>
      </trkpt>
      <trkpt lat="37.771190" lon="-122.155440">
        <ele>90.907</ele>
        <time>2018-12-29T07:35:37Z</time>
      </trkpt>
      <trkpt lat="37.771480" lon="-122.155720">
        <ele>91.008</ele>
        <time>2018-12-29T07:35:57Z</time>
      </trkpt>
      <trkpt lat="37.771720" lon="-122.155960">
        <ele>91.244</ele>
        <time>2018-12-29T07:36:17Z</time>
      </trkpt>
      <trkpt lat="37.771980" lon="-122.156240">
        <ele>91.392</ele>
        <time>2018-12-29T07:36:37Z</time>
      </trkpt>
      <trkpt lat="37.772040" lon="-122.156310">
        <ele>91.377</ele>
        <time>2018-12-29T07:36:57Z</time>
      </trkpt>
      <trkpt lat="37.772240" lon="-122.156540">
        <ele>91.666</ele>
        <time>2018-12-29T07:37:17Z</time>
      </trkpt>
      <trkpt lat="37.772450" lon="-122.156800">
        <ele>92.350</ele>
        <time>2018-12-29T07:37:37Z</time>
      </trkpt>
      <trkpt lat="37.772640" lon="-122.157040">
        <ele>92.653</ele>
        <time>2018-12-29T07:37:57Z</time>
      </trkpt>
      <trkpt lat="37.772820" lon="-122.157290">
        <ele>93.377</ele>
        <time>2018-12-29T07:38:17Z</time>
      </trkpt>
      <trkpt lat="37.773010" lon="-122.157560">
        <ele>94.050</ele>
        <time>2018-12-29T07:38:37Z</time>
      </trkpt>
      <trkpt lat="37.773150" lon="-122.157760">
        <ele>94.512</ele>
        <time>2018-12-29T07:38:57Z</time>
      </trkpt>
      <trkpt lat="37.773310" lon="-122.158020">
        <ele>95.532</ele>
        <time>2018-12-29T07:39:17Z</time>
      </trkpt>
      <trkpt lat="37.773830" lon="-122.158890">
        <ele>99.005</ele>
        <time>2018-12-29T07:39:37Z</time>
      </trkpt>
      <trkpt lat="37.773980" lon="-122.159170">
        <ele>99.008</ele>
        <time>2018-12-29T07:39:57Z</time>
      </trkpt>
      <trkpt lat="37.774140" lon="-122.159450">
        <ele>100.384</ele>
        <time>2018-12-29T07:40:17Z</time>
      </trkpt>
      <trkpt lat="37.774500" lon="-122.160150">
        <ele>100.192</ele>
        <time>2018-12-29T07:40:37Z</time>
      </trkpt>
      <trkpt lat="37.775980" lon="-122.163070">
        <ele>98.297</ele>
        <time>2018-12-29T07:40:57Z</time>
      </trkpt>
      <trkpt lat="37.776440" lon="-122.164040">
        <ele>92.066</ele>
        <time>2018-12-29T07:41:17Z</time>
      </trkpt>
      <trkpt lat="37.776540" lon="-122.164250">
        <ele>95.070</ele>
        <time>2018-12-29T07:41:37Z</time>
      </trkpt>
      <trkpt lat="37.777800" lon="-122.167050">
        <ele>91.073</ele>
        <time>2018-12-29T07:41:57Z</time>
      </trkpt>
      <trkpt lat="37.778110" lon="-122.167750">
        <ele>89.947</ele>
        <time>2018-12-29T07:42:17Z</time>
      </trkpt>
      <trkpt lat="37.778310" lon="-122.168180">
        <ele>90.440</ele>
        <time>2018-12-29T07:42:37Z</time>
      </trkpt>
      <trkpt lat="37.778670" lon="-122.168930">
        <ele>90.282</ele>
        <time>2018-12-29T07:42:57Z</time>
      </trkpt>
      <trkpt lat="37.779130" lon="-122.169820">
        <ele>90.543</ele>
        <time>2018-12-29T07:43:17Z</time>
      </trkpt>
      <trkpt lat="37.779190" lon="-122.169910">
        <ele>90.217</ele>
        <time>2018-12-29T07:43:37Z</time>
      </trkpt>
      <trkpt lat="37.779470" lon="-122.170430">
        <ele>90.208</ele>
        <time>2018-12-29T07:43:57Z</time>
      </trkpt>
      <trkpt lat="37.780410" lon="-122.172190">
        <ele>91.121</ele>
        <time>2018-12-29T07:44:17Z</time>
      </trkpt>
      <trkpt lat="37.780740" lon="-122.172820">
        <ele>90.369</ele>
        <time>2018-12-29T07:44:37Z</time>
      </trkpt>
      <trkpt lat="37.780780" lon="-122.172950">
        <ele>90.234</ele>
        <time>2018-12-29T07:44:57Z</time>
      </trkpt>
      <trkpt lat="37.780970" lon="-122.173330">
        <ele>86.853</ele>
        <time>2018-12-29T07:45:17Z</time>
      </trkpt>
      <trkpt lat="37.781030" lon="-122.173430">
        <ele>84.027</ele>
        <time>2018-12-29T07:45:37Z</time>
      </trkpt>
      <trkpt lat="37.781150" lon="-122.173650">
        <ele>82.450</ele>
        <time>2018-12-29T07:45:57Z</time>
      </trkpt>
      <trkpt lat="37.781260" lon="-122.173830">
        <ele>85.174</ele>
        <time>2018-12-29T07:46:17Z</time>
      </trkpt>
      <trkpt lat="37.781300" lon="-122.173900">
        <ele>86.487</ele>
        <time>2018-12-29T07:46:37Z</time>
      </trkpt>
      <trkpt lat="37.781340" lon="-122.173970">
        <ele>87.631</ele>
        <time>2018-12-29T07:46:57Z</time>
      </trkpt>
      <trkpt lat="37.781730" lon="-122.174600">
        <ele>86.561</ele>
        <time>2018-12-29T07:47:17Z</time>
      </trkpt>
      <trkpt lat="37.782250" lon="-122.175450">
        <ele>82.907</ele>
        <time>2018-12-29T07:47:37Z</time>
      </trkpt>
      <trkpt lat="37.782470" lon="-122.175780">
        <ele>81.408</ele>
        <time>2018-12-29T07:47:57Z</time>
      </trkpt>
      <trkpt lat="37.782750" lon="-122.176220">
        <ele>79.516</ele>
        <time>2018-12-29T07:48:17Z</time>
      </trkpt>
      <trkpt lat="37.782890" lon="-122.176440">
        <ele>78.924</ele>
        <time>2018-12-29T07:48:37Z</time>
      </trkpt>
      <trkpt lat="37.783120" lon="-122.176810">
        <ele>78.179</ele>
        <time>2018-12-29T07:48:57Z</time>
      </trkpt>
      <trkpt lat="37.783280" lon="-122.177090">
        <ele>76.488</ele>
        <time>2018-12-29T07:49:17Z</time>
      </trkpt>
      <trkpt lat="37.783400" lon="-122.177310">
        <ele>76.372</ele>
        <time>2018-12-29T07:49:37Z</time>
      </trkpt>
      <trkpt lat="37.783470" lon="-122.177460">
        <ele>76.385</ele>
        <time>2018-12-29T07:49:57Z</time>
      </trkpt>
      <trkpt lat="37.783610" lon="-122.177790">
        <ele>75.799</ele>
        <time>2018-12-29T07:50:17Z</time>
      </trkpt>
      <trkpt lat="37.783810" lon="-122.178390">
        <ele>73.752</ele>
        <time>2018-12-29T07:50:37Z</time>
      </trkpt>
      <trkpt lat="37.783820" lon="-122.178400">
        <ele>73.735</ele>
        <time>2018-12-29T07:50:57Z</time>
      </trkpt>
      <trkpt lat="37.783830" lon="-122.178440">
        <ele>73.586</ele>
        <time>2018-12-29T07:51:17Z</time>
      </trkpt>
      <trkpt lat="37.783830" lon="-122.178450">
        <ele>73.514</ele>
        <time>2018-12-29T07:51:37Z</time>
      </trkpt>
      <trkpt lat="37.783910" lon="-122.178730">
        <ele>73.008</ele>
        <time>2018-12-29T07:51:57Z</time>
      </trkpt>
      <trkpt lat="37.783970" lon="-122.179060">
        <ele>72.066</ele>
        <time>2018-12-29T07:52:17Z</time>
      </trkpt>
      <trkpt lat="37.784000" lon="-122.179260">
        <ele>71.374</ele>
        <time>2018-12-29T07:52:37Z</time>
      </trkpt>
      <trkpt lat="37.784040" lon="-122.179600">
        <ele>70.399</ele>
        <time>2018-12-29T07:52:57Z</time>
      </trkpt>
      <trkpt lat="37.784060" lon="-122.180050">
        <ele>68.568</ele>
        <time>2018-12-29T07:53:17Z</time>
      </trkpt>
      <trkpt lat="37.784080" lon="-122.180510">
        <ele>64.932</ele>
        <time>2018-12-29T07:53:37Z</time>
      </trkpt>
      <trkpt lat="37.784080" lon="-122.180760">
        <ele>61.935</ele>
        <time>2018-12-29T07:53:57Z</time>
      </trkpt>
      <trkpt lat="37.784080" lon="-122.180800">
        <ele>62.659</ele>
        <time>2018-12-29T07:54:17Z</time>
      </trkpt>
      <trkpt lat="37.784090" lon="-122.181100">
        <ele>65.322</ele>
        <time>2018-12-29T07:54:37Z</time>
      </trkpt>
      <trkpt lat="37.784120" lon="-122.182070">
        <ele>63.725</ele>
        <time>2018-12-29T07:54:57Z</time>
      </trkpt>
      <trkpt lat="37.784150" lon="-122.183040">
        <ele>61.526</ele>
        <time>2018-12-29T07:55:17Z</time>
      </trkpt>
      <trkpt lat="37.784200" lon="-122.184560">
        <ele>57.008</ele>
        <time>2018-12-29T07:55:37Z</time>
      </trkpt>
      <trkpt lat="37.784260" lon="-122.186360">
        <ele>53.908</ele>
        <time>2018-12-29T07:55:57Z</time>
      </trkpt>
      <trkpt lat="37.784330" lon="-122.187480">
        <ele>53.515</ele>
        <time>2018-12-29T07:56:17Z</time>
      </trkpt>
      <trkpt lat="37.784350" lon="-122.187740">
        <ele>50.373</ele>
        <time>2018-12-29T07:56:37Z</time>
      </trkpt>
      <trkpt lat="37.784360" lon="-122.187960">
        <ele>46.628</ele>
        <time>2018-12-29T07:56:57Z</time>
      </trkpt>
      <trkpt lat="37.784450" lon="-122.188580">
        <ele>48.837</ele>
        <time>2018-12-29T07:57:17Z</time>
      </trkpt>
      <trkpt lat="37.784480" lon="-122.188760">
        <ele>51.051</ele>
        <time>2018-12-29T07:57:37Z</time>
      </trkpt>
      <trkpt lat="37.784480" lon="-122.188770">
        <ele>51.174</ele>
        <time>2018-12-29T07:57:57Z</time>
      </trkpt>
      <trkpt lat="37.784500" lon="-122.188890">
        <ele>52.228</ele>
        <time>2018-12-29T07:58:17Z</time>
      </trkpt>
      <trkpt lat="37.784570" lon="-122.189370">
        <ele>55.691</ele>
        <time>2018-12-29T07:58:37Z</time>
      </trkpt>
      <trkpt lat="37.784650" lon="-122.189800">
        <ele>55.394</ele>
        <time>2018-12-29T07:58:57Z</time>
      </trkpt>
      <trkpt lat="37.784710" lon="-122.190090">
        <ele>55.657</ele>
        <time>2018-12-29T07:59:17Z</time>
      </trkpt>
      <trkpt lat="37.784780" lon="-122.190400">
        <ele>56.822</ele>
        <time>2018-12-29T07:59:37Z</time>
      </trkpt>
      <trkpt lat="37.784850" lon="-122.190680">
        <ele>57.308</ele>
        <time>2018-12-29T07:59:57Z</time>
      </trkpt>
      <trkpt lat="37.784940" lon="-122.191060">
        <ele>57.962</ele>
        <time>2018-12-29T08:00:17Z</time>
      </trkpt>
      <trkpt lat="37.785000" lon="-122.191270">
        <ele>58.450</ele>
        <time>2018-12-29T08:00:37Z</time>
      </trkpt>
      <trkpt lat="37.785100" lon="-122.191640">
        <ele>59.175</ele>
        <time>2018-12-29T08:00:57Z</time>
      </trkpt>
      <trkpt lat="37.785180" lon="-122.191910">
        <ele>59.724</ele>
        <time>2018-12-29T08:01:17Z</time>
      </trkpt>
      <trkpt lat="37.785270" lon="-122.192170">
        <ele>60.078</ele>
        <time>2018-12-29T08:01:37Z</time>
      </trkpt>
      <trkpt lat="37.785320" lon="-122.192330">
        <ele>60.131</ele>
        <time>2018-12-29T08:01:57Z</time>
      </trkpt>
      <trkpt lat="37.785380" lon="-122.192490">
        <ele>59.995</ele>
        <time>2018-12-29T08:02:17Z</time>
      </trkpt>
      <trkpt lat="37.785570" lon="-122.193020">
        <ele>59.778</ele>
        <time>2018-12-29T08:02:37Z</time>
      </trkpt>
      <trkpt lat="37.785710" lon="-122.193350">
        <ele>59.132</ele>
        <time>2018-12-29T08:02:57Z</time>
      </trkpt>
      <trkpt lat="37.785710" lon="-122.193360">
        <ele>59.092</ele>
        <time>2018-12-29T08:03:17Z</time>
      </trkpt>
      <trkpt lat="37.785750" lon="-122.193470">
        <ele>58.211</ele>
        <time>2018-12-29T08:03:37Z</time>
      </trkpt>
      <trkpt lat="37.785770" lon="-122.193510">
        <ele>58.308</ele>
        <time>2018-12-29T08:03:57Z</time>
      </trkpt>
      <trkpt lat="37.785950" lon="-122.193920">
        <ele>58.476</ele>
        <time>2018-12-29T08:04:17Z</time>
      </trkpt>
      <trkpt lat="37.786210" lon="-122.194500">
        <ele>59.024</ele>
        <time>2018-12-29T08:04:37Z</time>
      </trkpt>
      <trkpt lat="37.786550" lon="-122.195220">
        <ele>57.239</ele>
        <time>2018-12-29T08:04:57Z</time>
      </trkpt>
      <trkpt lat="37.786850" lon="-122.195810">
        <ele>49.788</ele>
        <time>2018-12-29T08:05:17Z</time>
      </trkpt>
      <trkpt lat="37.786860" lon="-122.195840">
        <ele>49.812</ele>
        <time>2018-12-29T08:05:37Z</time>
      </trkpt>
      <trkpt lat="37.786870" lon="-122.195850">
        <ele>49.995</ele>
        <time>2018-12-29T08:05:57Z</time>
      </trkpt>
      <trkpt lat="37.787360" lon="-122.196800">
        <ele>53.189</ele>
        <time>2018-12-29T08:06:17Z</time>
      </trkpt>
      <trkpt lat="37.787500" lon="-122.197120">
        <ele>52.872</ele>
        <time>2018-12-29T08:06:37Z</time>
      </trkpt>
      <trkpt lat="37.787710" lon="-122.197540">
        <ele>52.863</ele>
        <time>2018-12-29T08:06:57Z</time>
      </trkpt>
      <trkpt lat="37.788050" lon="-122.198210">
        <ele>52.744</ele>
        <time>2018-12-29T08:07:17Z</time>
      </trkpt>
      <trkpt lat="37.788120" lon="-122.198370">
        <ele>52.618</ele>
        <time>2018-12-29T08:07:37Z</time>
      </trkpt>
      <trkpt lat="37.788450" lon="-122.199010">
        <ele>51.708</ele>
        <time>2018-12-29T08:07:57Z</time>
      </trkpt>
      <trkpt lat="37.788620" lon="-122.199300">
        <ele>51.119</ele>
        <time>2018-12-29T08:08:17Z</time>
      </trkpt>
      <trkpt lat="37.788710" lon="-122.199470">
        <ele>50.727</ele>
        <time>2018-12-29T08:08:37Z</time>
      </trkpt>
      <trkpt lat="37.788800" lon="-122.199610">
        <ele>50.922</ele>
        <time>2018-12-29T08:08:57Z</time>
      </trkpt>
      <trkpt lat="37.788900" lon="-122.199760">
        <ele>50.691</ele>
        <time>2018-12-29T08:09:17Z</time>
      </trkpt>
      <trkpt lat="37.789120" lon="-122.200080">
        <ele>49.455</ele>
        <time>2018-12-29T08:09:37Z</time>
      </trkpt>
      <trkpt lat="37.789350" lon="-122.200390">
        <ele>48.428</ele>
        <time>2018-12-29T08:09:57Z</time>
      </trkpt>
      <trkpt lat="37.789510" lon="-122.200590">
        <ele>48.482</ele>
        <time>2018-12-29T08:10:17Z</time>
      </trkpt>
      <trkpt lat="37.789860" lon="-122.200980">
        <ele>47.475</ele>
        <time>2018-12-29T08:10:37Z</time>
      </trkpt>
      <trkpt lat="37.790120" lon="-122.201240">
        <ele>47.417</ele>
        <time>2018-12-29T08:10:57Z</time>
      </trkpt>
      <trkpt lat="37.790490" lon="-122.201600">
        <ele>48.187</ele>
        <time>2018-12-29T08:11:17Z</time>
      </trkpt>
      <trkpt lat="37.791710" lon="-122.202720">
        <ele>48.115</ele>
        <time>2018-12-29T08:11:37Z</time>
      </trkpt>
      <trkpt lat="37.792190" lon="-122.203160">
        <ele>48.908</ele>
        <time>2018-12-29T08:11:57Z</time>
      </trkpt>
      <trkpt lat="37.792190" lon="-122.203170">
        <ele>48.854</ele>
        <time>2018-12-29T08:12:17Z</time>
      </trkpt>
      <trkpt lat="37.792280" lon="-122.203250">
        <ele>48.962</ele>
        <time>2018-12-29T08:12:37Z</time>
      </trkpt>
      <trkpt lat="37.792940" lon="-122.203890">
        <ele>52.447</ele>
        <time>2018-12-29T08:12:57Z</time>
      </trkpt>
      <trkpt lat="37.793370" lon="-122.204350">
        <ele>54.426</ele>
        <time>2018-12-29T08:13:17Z</time>
      </trkpt>
      <trkpt lat="37.793750" lon="-122.204830">
        <ele>56.610</ele>
        <time>2018-12-29T08:13:37Z</time>
      </trkpt>
      <trkpt lat="37.793790" lon="-122.204880">
        <ele>56.523</ele>
        <time>2018-12-29T08:13:57Z</time>
      </trkpt>
      <trkpt lat="37.793850" lon="-122.204960">
        <ele>56.657</ele>
        <time>2018-12-29T08:14:17Z</time>
      </trkpt>
      <trkpt lat="37.794080" lon="-122.205300">
        <ele>58.250</ele>
        <time>2018-12-29T08:14:37Z</time>
      </trkpt>
      <trkpt lat="37.794380" lon="-122.205800">
        <ele>59.711</ele>
        <time>2018-12-29T08:14:57Z</time>
      </trkpt>
      <trkpt lat="37.794680" lon="-122.206340">
        <ele>61.421</ele>
        <time>2018-12-29T08:15:17Z</time>
      </trkpt>
      <trkpt lat="37.794910" lon="-122.206810">
        <ele>62.303</ele>
        <time>2018-12-29T08:15:37Z</time>
      </trkpt>
      <trkpt lat="37.795140" lon="-122.207280">
        <ele>58.208</ele>
        <time>2018-12-29T08:15:57Z</time>
      </trkpt>
      <trkpt lat="37.795170" lon="-122.207340">
        <ele>58.864</ele>
        <time>2018-12-29T08:16:17Z</time>
      </trkpt>
      <trkpt lat="37.795170" lon="-122.207360">
        <ele>58.952</ele>
        <time>2018-12-29T08:16:37Z</time>
      </trkpt>
      <trkpt lat="37.795260" lon="-122.207550">
        <ele>62.657</ele>
        <time>2018-12-29T08:16:57Z</time>
      </trkpt>
      <trkpt lat="37.795390" lon="-122.207820">
        <ele>63.856</ele>
        <time>2018-12-29T08:17:17Z</time>
      </trkpt>
      <trkpt lat="37.795930" lon="-122.208980">
        <ele>63.410</ele>
        <time>2018-12-29T08:17:37Z</time>
      </trkpt>
      <trkpt lat="37.796180" lon="-122.209530">
        <ele>62.953</ele>
        <time>2018-12-29T08:17:57Z</time>
      </trkpt>
      <trkpt lat="37.796420" lon="-122.210040">
        <ele>62.197</ele>
        <time>2018-12-29T08:18:17Z</time>
      </trkpt>
      <trkpt lat="37.796660" lon="-122.210550">
        <ele>58.190</ele>
        <time>2018-12-29T08:18:37Z</time>
      </trkpt>
      <trkpt lat="37.796670" lon="-122.210590">
        <ele>58.024</ele>
        <time>2018-12-29T08:18:57Z</time>
      </trkpt>
      <trkpt lat="37.796670" lon="-122.210600">
        <ele>57.904</ele>
        <time>2018-12-29T08:19:17Z</time>
      </trkpt>
      <trkpt lat="37.796680" lon="-122.210610">
        <ele>58.014</ele>
        <time>2018-12-29T08:19:37Z</time>
      </trkpt>
      <trkpt lat="37.796990" lon="-122.211440">
        <ele>60.208</ele>
        <time>2018-12-29T08:19:57Z</time>
      </trkpt>
      <trkpt lat="37.797060" lon="-122.211690">
        <ele>59.715</ele>
        <time>2018-12-29T08:20:17Z</time>
      </trkpt>
      <trkpt lat="37.797360" lon="-122.212800">
        <ele>57.473</ele>
        <time>2018-12-29T08:20:37Z</time>
      </trkpt>
      <trkpt lat="37.797540" lon="-122.213520">
        <ele>56.768</ele>
        <time>2018-12-29T08:20:57Z</time>
      </trkpt>
      <trkpt lat="37.797560" lon="-122.213590">
        <ele>56.437</ele>
        <time>2018-12-29T08:21:17Z</time>
      </trkpt>
      <trkpt lat="37.797560" lon="-122.213600">
        <ele>56.391</ele>
        <time>2018-12-29T08:21:37Z</time>
      </trkpt>
      <trkpt lat="37.797800" lon="-122.214550">
        <ele>56.544</ele>
        <time>2018-12-29T08:21:57Z</time>
      </trkpt>
      <trkpt lat="37.798040" lon="-122.215510">
        <ele>49.728</ele>
        <time>2018-12-29T08:22:17Z</time>
      </trkpt>
      <trkpt lat="37.798060" lon="-122.215590">
        <ele>49.211</ele>
        <time>2018-12-29T08:22:37Z</time>
      </trkpt>
      <trkpt lat="37.798150" lon="-122.215940">
        <ele>48.711</ele>
        <time>2018-12-29T08:22:57Z</time>
      </trkpt>
      <trkpt lat="37.798220" lon="-122.216230">
        <ele>48.221</ele>
        <time>2018-12-29T08:23:17Z</time>
      </trkpt>
      <trkpt lat="37.798240" lon="-122.216290">
        <ele>48.303</ele>
        <time>2018-12-29T08:23:37Z</time>
      </trkpt>
      <trkpt lat="37.798320" lon="-122.216640">
        <ele>48.608</ele>
        <time>2018-12-29T08:23:57Z</time>
      </trkpt>
      <trkpt lat="37.798390" lon="-122.216890">
        <ele>48.524</ele>
        <time>2018-12-29T08:24:17Z</time>
      </trkpt>
      <trkpt lat="37.798390" lon="-122.216900">
        <ele>48.542</ele>
        <time>2018-12-29T08:24:37Z</time>
      </trkpt>
      <trkpt lat="37.798410" lon="-122.216980">
        <ele>48.677</ele>
        <time>2018-12-29T08:24:57Z</time>
      </trkpt>
      <trkpt lat="37.798420" lon="-122.217030">
        <ele>48.636</ele>
        <time>2018-12-29T08:25:17Z</time>
      </trkpt>
      <trkpt lat="37.798580" lon="-122.217750">
        <ele>53.950</ele>
        <time>2018-12-29T08:25:37Z</time>
      </trkpt>
      <trkpt lat="37.798780" lon="-122.218510">
        <ele>55.073</ele>
        <time>2018-12-29T08:25:57Z</time>
      </trkpt>
      <trkpt lat="37.798880" lon="-122.218890">
        <ele>55.187</ele>
        <time>2018-12-29T08:26:17Z</time>
      </trkpt>
      <trkpt lat="37.799040" lon="-122.219540">
        <ele>57.450</ele>
        <time>2018-12-29T08:26:37Z</time>
      </trkpt>
      <trkpt lat="37.799150" lon="-122.220030">
        <ele>57.983</ele>
        <time>2018-12-29T08:26:57Z</time>
      </trkpt>
      <trkpt lat="37.799220" lon="-122.220360">
        <ele>58.525</ele>
        <time>2018-12-29T08:27:17Z</time>
      </trkpt>
      <trkpt lat="37.799350" lon="-122.220960">
        <ele>60.417</ele>
        <time>2018-12-29T08:27:37Z</time>
      </trkpt>
      <trkpt lat="37.799360" lon="-122.220980">
        <ele>60.708</ele>
        <time>2018-12-29T08:27:57Z</time>
      </trkpt>
      <trkpt lat="37.799380" lon="-122.221080">
        <ele>61.021</ele>
        <time>2018-12-29T08:28:17Z</time>
      </trkpt>
      <trkpt lat="37.799540" lon="-122.221810">
        <ele>58.949</ele>
        <time>2018-12-29T08:28:37Z</time>
      </trkpt>
      <trkpt lat="37.799710" lon="-122.222560">
        <ele>60.844</ele>
        <time>2018-12-29T08:28:57Z</time>
      </trkpt>
      <trkpt lat="37.799860" lon="-122.223340">
        <ele>56.653</ele>
        <time>2018-12-29T08:29:17Z</time>
      </trkpt>
      <trkpt lat="37.800010" lon="-122.224050">
        <ele>57.777</ele>
        <time>2018-12-29T08:29:37Z</time>
      </trkpt>
      <trkpt lat="37.800030" lon="-122.224170">
        <ele>57.020</ele>
        <time>2018-12-29T08:29:57Z</time>
      </trkpt>
      <trkpt lat="37.800150" lon="-122.224760">
        <ele>56.854</ele>
        <time>2018-12-29T08:30:17Z</time>
      </trkpt>
      <trkpt lat="37.800190" lon="-122.224970">
        <ele>57.437</ele>
        <time>2018-12-29T08:30:37Z</time>
      </trkpt>
      <trkpt lat="37.800240" lon="-122.225220">
        <ele>57.729</ele>
        <time>2018-12-29T08:30:57Z</time>
      </trkpt>
      <trkpt lat="37.800480" lon="-122.226430">
        <ele>57.900</ele>
        <time>2018-12-29T08:31:17Z</time>
      </trkpt>
      <trkpt lat="37.800490" lon="-122.226490">
        <ele>57.620</ele>
        <time>2018-12-29T08:31:37Z</time>
      </trkpt>
      <trkpt lat="37.800540" lon="-122.226700">
        <ele>55.108</ele>
        <time>2018-12-29T08:31:57Z</time>
      </trkpt>
      <trkpt lat="37.800540" lon="-122.226710">
        <ele>55.115</ele>
        <time>2018-12-29T08:32:17Z</time>
      </trkpt>
      <trkpt lat="37.800640" lon="-122.227200">
        <ele>58.463</ele>
        <time>2018-12-29T08:32:37Z</time>
      </trkpt>
      <trkpt lat="37.800750" lon="-122.227630">
        <ele>59.358</ele>
        <time>2018-12-29T08:32:57Z</time>
      </trkpt>
      <trkpt lat="37.800800" lon="-122.227840">
        <ele>57.987</ele>
        <time>2018-12-29T08:33:17Z</time>
      </trkpt>
      <trkpt lat="37.800870" lon="-122.228120">
        <ele>58.051</ele>
        <time>2018-12-29T08:33:37Z</time>
      </trkpt>
      <trkpt lat="37.800930" lon="-122.228290">
        <ele>58.414</ele>
        <time>2018-12-29T08:33:57Z</time>
      </trkpt>
      <trkpt lat="37.801000" lon="-122.228520">
        <ele>56.588</ele>
        <time>2018-12-29T08:34:17Z</time>
      </trkpt>
      <trkpt lat="37.801080" lon="-122.228700">
        <ele>50.881</ele>
        <time>2018-12-29T08:34:37Z</time>
      </trkpt>
      <trkpt lat="37.801120" lon="-122.228810">
        <ele>51.368</ele>
        <time>2018-12-29T08:34:57Z</time>
      </trkpt>
      <trkpt lat="37.801130" lon="-122.228830">
        <ele>51.842</ele>
        <time>2018-12-29T08:35:17Z</time>
      </trkpt>
      <trkpt lat="37.801180" lon="-122.228940">
        <ele>54.726</ele>
        <time>2018-12-29T08:35:37Z</time>
      </trkpt>
      <trkpt lat="37.801290" lon="-122.229170">
        <ele>55.908</ele>
        <time>2018-12-29T08:35:57Z</time>
      </trkpt>
      <trkpt lat="37.801300" lon="-122.229200">
        <ele>55.759</ele>
        <time>2018-12-29T08:36:17Z</time>
      </trkpt>
      <trkpt lat="37.801450" lon="-122.229480">
        <ele>54.737</ele>
        <time>2018-12-29T08:36:37Z</time>
      </trkpt>
      <trkpt lat="37.801640" lon="-122.229810">
        <ele>53.282</ele>
        <time>2018-12-29T08:36:57Z</time>
      </trkpt>
      <trkpt lat="37.801840" lon="-122.230100">
        <ele>53.611</ele>
        <time>2018-12-29T08:37:17Z</time>
      </trkpt>
      <trkpt lat="37.802140" lon="-122.230520">
        <ele>51.665</ele>
        <time>2018-12-29T08:37:37Z</time>
      </trkpt>
      <trkpt lat="37.802630" lon="-122.231130">
        <ele>49.838</ele>
        <time>2018-12-29T08:37:57Z</time>
      </trkpt>
      <trkpt lat="37.802790" lon="-122.231350">
        <ele>49.922</ele>
        <time>2018-12-29T08:38:17Z</time>
      </trkpt>
      <trkpt lat="37.803560" lon="-122.232310">
        <ele>50.765</ele>
        <time>2018-12-29T08:38:37Z</time>
      </trkpt>
      <trkpt lat="37.803840" lon="-122.232660">
        <ele>51.245</ele>
        <time>2018-12-29T08:38:57Z</time>
      </trkpt>
      <trkpt lat="37.804030" lon="-122.232900">
        <ele>51.347</ele>
        <time>2018-12-29T08:39:17Z</time>
      </trkpt>
      <trkpt lat="37.804140" lon="-122.233040">
        <ele>49.011</ele>
        <time>2018-12-29T08:39:37Z</time>
      </trkpt>
      <trkpt lat="37.804230" lon="-122.233180">
        <ele>46.708</ele>
        <time>2018-12-29T08:39:57Z</time>
      </trkpt>
      <trkpt lat="37.804330" lon="-122.233320">
        <ele>45.027</ele>
        <time>2018-12-29T08:40:17Z</time>
      </trkpt>
      <trkpt lat="37.804350" lon="-122.233340">
        <ele>45.295</ele>
        <time>2018-12-29T08:40:37Z</time>
      </trkpt>
      <trkpt lat="37.804460" lon="-122.233500">
        <ele>47.650</ele>
        <time>2018-12-29T08:40:57Z</time>
      </trkpt>
      <trkpt lat="37.804600" lon="-122.233700">
        <ele>50.449</ele>
        <time>2018-12-29T08:41:17Z</time>
      </trkpt>
      <trkpt lat="37.804760" lon="-122.233940">
        <ele>49.963</ele>
        <time>2018-12-29T08:41:37Z</time>
      </trkpt>
      <trkpt lat="37.804890" lon="-122.234140">
        <ele>50.236</ele>
        <time>2018-12-29T08:41:57Z</time>
      </trkpt>
      <trkpt lat="37.805030" lon="-122.234370">
        <ele>49.150</ele>
        <time>2018-12-29T08:42:17Z</time>
      </trkpt>
      <trkpt lat="37.805150" lon="-122.234570">
        <ele>48.683</ele>
        <time>2018-12-29T08:42:37Z</time>
      </trkpt>
      <trkpt lat="37.805220" lon="-122.234700">
        <ele>48.863</ele>
        <time>2018-12-29T08:42:57Z</time>
      </trkpt>
      <trkpt lat="37.805380" lon="-122.234980">
        <ele>47.244</ele>
        <time>2018-12-29T08:43:17Z</time>
      </trkpt>
      <trkpt lat="37.805530" lon="-122.235250">
        <ele>46.518</ele>
        <time>2018-12-29T08:43:37Z</time>
      </trkpt>
      <trkpt lat="37.805760" lon="-122.235700">
        <ele>43.908</ele>
        <time>2018-12-29T08:43:57Z</time>
      </trkpt>
      <trkpt lat="37.805790" lon="-122.235750">
        <ele>44.039</ele>
        <time>2018-12-29T08:44:17Z</time>
      </trkpt>
      <trkpt lat="37.805940" lon="-122.236060">
        <ele>42.857</ele>
        <time>2018-12-29T08:44:37Z</time>
      </trkpt>
      <trkpt lat="37.806070" lon="-122.236340">
        <ele>42.192</ele>
        <time>2018-12-29T08:44:57Z</time>
      </trkpt>
      <trkpt lat="37.806210" lon="-122.236650">
        <ele>40.471</ele>
        <time>2018-12-29T08:45:17Z</time>
      </trkpt>
      <trkpt lat="37.806290" lon="-122.236820">
        <ele>38.845</ele>
        <time>2018-12-29T08:45:37Z</time>
      </trkpt>
      <trkpt lat="37.806530" lon="-122.237330">
        <ele>36.948</ele>
        <time>2018-12-29T08:45:57Z</time>
      </trkpt>
      <trkpt lat="37.806770" lon="-122.237850">
        <ele>35.152</ele>
        <time>2018-12-29T08:46:17Z</time>
      </trkpt>
      <trkpt lat="37.807900" lon="-122.240310">
        <ele>25.365</ele>
        <time>2018-12-29T08:46:37Z</time>
      </trkpt>
      <trkpt lat="37.808190" lon="-122.241020">
        <ele>22.532</ele>
        <time>2018-12-29T08:46:57Z</time>
      </trkpt>
      <trkpt lat="37.808360" lon="-122.241460">
        <ele>21.292</ele>
        <time>2018-12-29T08:47:17Z</time>
      </trkpt>
      <trkpt lat="37.808450" lon="-122.241720">
        <ele>19.711</ele>
        <time>2018-12-29T08:47:37Z</time>
      </trkpt>
      <trkpt lat="37.808530" lon="-122.241930">
        <ele>18.508</ele>
        <time>2018-12-29T08:47:57Z</time>
      </trkpt>
      <trkpt lat="37.808540" lon="-122.241960">
        <ele>18.576</ele>
        <time>2018-12-29T08:48:17Z</time>
      </trkpt>
      <trkpt lat="37.808560" lon="-122.242000">
        <ele>18.574</ele>
        <time>2018-12-29T08:48:37Z</time>
      </trkpt>
      <trkpt lat="37.808600" lon="-122.242110">
        <ele>18.649</ele>
        <time>2018-12-29T08:48:57Z</time>
      </trkpt>
      <trkpt lat="37.808660" lon="-122.242290">
        <ele>18.448</ele>
        <time>2018-12-29T08:49:17Z</time>
      </trkpt>
      <trkpt lat="37.808770" lon="-122.242670">
        <ele>16.162</ele>
        <time>2018-12-29T08:49:37Z</time>
      </trkpt>
      <trkpt lat="37.809030" lon="-122.243590">
        <ele>13.215</ele>
        <time>2018-12-29T08:49:57Z</time>
      </trkpt>
      <trkpt lat="37.809060" lon="-122.243690">
        <ele>12.929</ele>
        <time>2018-12-29T08:50:17Z</time>
      </trkpt>
      <trkpt lat="37.809120" lon="-122.243880">
        <ele>12.952</ele>
        <time>2018-12-29T08:50:37Z</time>
      </trkpt>
      <trkpt lat="37.809190" lon="-122.244170">
        <ele>12.319</ele>
        <time>2018-12-29T08:50:57Z</time>
      </trkpt>
      <trkpt lat="37.809240" lon="-122.244350">
        <ele>11.609</ele>
        <time>2018-12-29T08:51:17Z</time>
      </trkpt>
      <trkpt lat="37.809410" lon="-122.244960">
        <ele>10.119</ele>
        <time>2018-12-29T08:51:37Z</time>
      </trkpt>
      <trkpt lat="37.809590" lon="-122.245560">
        <ele>10.208</ele>
        <time>2018-12-29T08:51:57Z</time>
      </trkpt>
      <trkpt lat="37.809700" lon="-122.245970">
        <ele>8.994</ele>
        <time>2018-12-29T08:52:17Z</time>
      </trkpt>
      <trkpt lat="37.809760" lon="-122.246150">
        <ele>6.952</ele>
        <time>2018-12-29T08:52:37Z</time>
      </trkpt>
      <trkpt lat="37.809790" lon="-122.246240">
        <ele>5.697</ele>
        <time>2018-12-29T08:52:57Z</time>
      </trkpt>
      <trkpt lat="37.809820" lon="-122.246320">
        <ele>4.756</ele>
        <time>2018-12-29T08:53:17Z</time>
      </trkpt>
      <trkpt lat="37.809820" lon="-122.246330">
        <ele>4.710</ele>
        <time>2018-12-29T08:53:37Z</time>
      </trkpt>
      <trkpt lat="37.809820" lon="-122.246340">
        <ele>4.723</ele>
        <time>2018-12-29T08:53:57Z</time>
      </trkpt>
      <trkpt lat="37.809830" lon="-122.246380">
        <ele>4.457</ele>
        <time>2018-12-29T08:54:17Z</time>
      </trkpt>
      <trkpt lat="37.809870" lon="-122.246500">
        <ele>4.010</ele>
        <time>2018-12-29T08:54:37Z</time>
      </trkpt>
      <trkpt lat="37.809870" lon="-122.246510">
        <ele>4.034</ele>
        <time>2018-12-29T08:54:57Z</time>
      </trkpt>
      <trkpt lat="37.809880" lon="-122.246560">
        <ele>4.055</ele>
        <time>2018-12-29T08:55:17Z</time>
      </trkpt>
      <trkpt lat="37.809970" lon="-122.246900">
        <ele>3.810</ele>
        <time>2018-12-29T08:55:37Z</time>
      </trkpt>
      <trkpt lat="37.810140" lon="-122.247490">
        <ele>4.208</ele>
        <time>2018-12-29T08:55:57Z</time>
      </trkpt>
      <trkpt lat="37.810270" lon="-122.247950">
        <ele>3.956</ele>
        <time>2018-12-29T08:56:17Z</time>
      </trkpt>
      <trkpt lat="37.810330" lon="-122.248140">
        <ele>3.774</ele>
        <time>2018-12-29T08:56:37Z</time>
      </trkpt>
      <trkpt lat="37.810370" lon="-122.248250">
        <ele>3.799</ele>
        <time>2018-12-29T08:56:57Z</time>
      </trkpt>
      <trkpt lat="37.810440" lon="-122.248410">
        <ele>3.638</ele>
        <time>2018-12-29T08:57:17Z</time>
      </trkpt>
      <trkpt lat="37.810470" lon="-122.248470">
        <ele>3.572</ele>
        <time>2018-12-29T08:57:37Z</time>
      </trkpt>
      <trkpt lat="37.810530" lon="-122.248600">
        <ele>4.145</ele>
        <time>2018-12-29T08:57:57Z</time>
      </trkpt>
      <trkpt lat="37.810560" lon="-122.248670">
        <ele>4.519</ele>
        <time>2018-12-29T08:58:17Z</time>
      </trkpt>
      <trkpt lat="37.810670" lon="-122.248870">
        <ele>6.312</ele>
        <time>2018-12-29T08:58:37Z</time>
      </trkpt>
      <trkpt lat="37.810690" lon="-122.248910">
        <ele>6.633</ele>
        <time>2018-12-29T08:58:57Z</time>
      </trkpt>
      <trkpt lat="37.810700" lon="-122.248930">
        <ele>6.823</ele>
        <time>2018-12-29T08:59:17Z</time>
      </trkpt>
      <trkpt lat="37.810800" lon="-122.249090">
        <ele>8.115</ele>
        <time>2018-12-29T08:59:37Z</time>
      </trkpt>
      <trkpt lat="37.810910" lon="-122.249230">
        <ele>9.508</ele>
        <time>2018-12-29T08:59:57Z</time>
      </trkpt>
      <trkpt lat="37.810970" lon="-122.249320">
        <ele>10.566</ele>
        <time>2018-12-29T09:00:17Z</time>
      </trkpt>
      <trkpt lat="37.811060" lon="-122.249430">
        <ele>10.934</ele>
        <time>2018-12-29T09:00:37Z</time>
      </trkpt>
      <trkpt lat="37.811230" lon="-122.249610">
        <ele>11.639</ele>
        <time>2018-12-29T09:00:57Z</time>
      </trkpt>
      <trkpt lat="37.811370" lon="-122.249750">
        <ele>12.498</ele>
        <time>2018-12-29T09:01:17Z</time>
      </trkpt>
      <trkpt lat="37.811640" lon="-122.249980">
        <ele>13.162</ele>
        <time>2018-12-29T09:01:37Z</time>
      </trkpt>
      <trkpt lat="37.811740" lon="-122.250040">
        <ele>13.435</ele>
        <time>2018-12-29T09:01:57Z</time>
      </trkpt>
      <trkpt lat="37.811790" lon="-122.250070">
        <ele>13.629</ele>
        <time>2018-12-29T09:02:17Z</time>
      </trkpt>
      <trkpt lat="37.811800" lon="-122.250070">
        <ele>13.612</ele>
        <time>2018-12-29T09:02:37Z</time>
      </trkpt>
      <trkpt lat="37.811870" lon="-122.250110">
        <ele>13.972</ele>
        <time>2018-12-29T09:02:57Z</time>
      </trkpt>
      <trkpt lat="37.812110" lon="-122.250240">
        <ele>15.213</ele>
        <time>2018-12-29T09:03:17Z</time>
      </trkpt>
      <trkpt lat="37.812350" lon="-122.250330">
        <ele>16.414</ele>
        <time>2018-12-29T09:03:37Z</time>
      </trkpt>
      <trkpt lat="37.812490" lon="-122.250370">
        <ele>17.208</ele>
        <time>2018-12-29T09:03:57Z</time>
      </trkpt>
      <trkpt lat="37.812630" lon="-122.250410">
        <ele>17.990</ele>
        <time>2018-12-29T09:04:17Z</time>
      </trkpt>
      <trkpt lat="37.812730" lon="-122.250440">
        <ele>18.568</ele>
        <time>2018-12-29T09:04:37Z</time>
      </trkpt>
      <trkpt lat="37.814020" lon="-122.250800">
        <ele>24.483</ele>
        <time>2018-12-29T09:04:57Z</time>
      </trkpt>
      <trkpt lat="37.814180" lon="-122.250830">
        <ele>25.282</ele>
        <time>2018-12-29T09:05:17Z</time>
      </trkpt>
      <trkpt lat="37.814700" lon="-122.250980">
        <ele>27.456</ele>
        <time>2018-12-29T09:05:37Z</time>
      </trkpt>
      <trkpt lat="37.815100" lon="-122.251080">
        <ele>29.349</ele>
        <time>2018-12-29T09:05:57Z</time>
      </trkpt>
      <trkpt lat="37.815270" lon="-122.251120">
        <ele>30.553</ele>
        <time>2018-12-29T09:06:17Z</time>
      </trkpt>
      <trkpt lat="37.815510" lon="-122.251200">
        <ele>31.916</ele>
        <time>2018-12-29T09:06:37Z</time>
      </trkpt>
      <trkpt lat="37.815740" lon="-122.251260">
        <ele>32.529</ele>
        <time>2018-12-29T09:06:57Z</time>
      </trkpt>
      <trkpt lat="37.815950" lon="-122.251330">
        <ele>33.300</ele>
        <time>2018-12-29T09:07:17Z</time>
      </trkpt>
      <trkpt lat="37.816140" lon="-122.251410">
        <ele>34.020</ele>
        <time>2018-12-29T09:07:37Z</time>
      </trkpt>
      <trkpt lat="37.816270" lon="-122.251460">
        <ele>34.408</ele>
        <time>2018-12-29T09:07:57Z</time>
      </trkpt>
      <trkpt lat="37.816320" lon="-122.251480">
        <ele>34.555</ele>
        <time>2018-12-29T09:08:17Z</time>
      </trkpt>
      <trkpt lat="37.816440" lon="-122.251530">
        <ele>34.783</ele>
        <time>2018-12-29T09:08:37Z</time>
      </trkpt>
      <trkpt lat="37.816550" lon="-122.251580">
        <ele>34.978</ele>
        <time>2018-12-29T09:08:57Z</time>
      </trkpt>
      <trkpt lat="37.816770" lon="-122.251710">
        <ele>35.367</ele>
        <time>2018-12-29T09:09:17Z</time>
      </trkpt>
      <trkpt lat="37.817040" lon="-122.251860">
        <ele>35.871</ele>
        <time>2018-12-29T09:09:37Z</time>
      </trkpt>
      <trkpt lat="37.817250" lon="-122.251990">
        <ele>35.754</ele>
        <time>2018-12-29T09:09:57Z</time>
      </trkpt>
      <trkpt lat="37.817400" lon="-122.252090">
        <ele>36.228</ele>
        <time>2018-12-29T09:10:17Z</time>
      </trkpt>
      <trkpt lat="37.817510" lon="-122.252170">
        <ele>36.281</ele>
        <time>2018-12-29T09:10:37Z</time>
      </trkpt>
      <trkpt lat="37.817580" lon="-122.252220">
        <ele>36.381</ele>
        <time>2018-12-29T09:10:57Z</time>
      </trkpt>
      <trkpt lat="37.817670" lon="-122.252290">
        <ele>36.261</ele>
        <time>2018-12-29T09:11:17Z</time>
      </trkpt>
      <trkpt lat="37.817910" lon="-122.252480">
        <ele>36.517</ele>
        <time>2018-12-29T09:11:37Z</time>
      </trkpt>
      <trkpt lat="37.817960" lon="-122.252530">
        <ele>36.008</ele>
        <time>2018-12-29T09:11:57Z</time>
      </trkpt>
      <trkpt lat="37.818020" lon="-122.252580">
        <ele>35.961</ele>
        <time>2018-12-29T09:12:17Z</time>
      </trkpt>
      <trkpt lat="37.818120" lon="-122.252680">
        <ele>36.679</ele>
        <time>2018-12-29T09:12:37Z</time>
      </trkpt>
      <trkpt lat="37.818460" lon="-122.253010">
        <ele>36.364</ele>
        <time>2018-12-29T09:12:57Z</time>
      </trkpt>
      <trkpt lat="37.818620" lon="-122.253180">
        <ele>35.973</ele>
        <time>2018-12-29T09:13:17Z</time>
      </trkpt>
      <trkpt lat="37.818690" lon="-122.253270">
        <ele>36.067</ele>
        <time>2018-12-29T09:13:37Z</time>
      </trkpt>
      <trkpt lat="37.818780" lon="-122.253380">
        <ele>34.760</ele>
        <time>2018-12-29T09:13:57Z</time>
      </trkpt>
      <trkpt lat="37.818880" lon="-122.253490">
        <ele>30.994</ele>
        <time>2018-12-29T09:14:17Z</time>
      </trkpt>
      <trkpt lat="37.818980" lon="-122.253610">
        <ele>27.567</ele>
        <time>2018-12-29T09:14:37Z</time>
      </trkpt>
      <trkpt lat="37.818980" lon="-122.253620">
        <ele>27.491</ele>
        <time>2018-12-29T09:14:57Z</time>
      </trkpt>
      <trkpt lat="37.818990" lon="-122.253630">
        <ele>27.281</ele>
        <time>2018-12-29T09:15:17Z</time>
      </trkpt>
      <trkpt lat="37.819070" lon="-122.253740">
        <ele>26.219</ele>
        <time>2018-12-29T09:15:37Z</time>
      </trkpt>
      <trkpt lat="37.819110" lon="-122.253790">
        <ele>25.608</ele>
        <time>2018-12-29T09:15:57Z</time>
      </trkpt>
      <trkpt lat="37.819120" lon="-122.253800">
        <ele>25.452</ele>
        <time>2018-12-29T09:16:17Z</time>
      </trkpt>
      <trkpt lat="37.819180" lon="-122.253880">
        <ele>24.370</ele>
        <time>2018-12-29T09:16:37Z</time>
      </trkpt>
      <trkpt lat="37.819200" lon="-122.253910">
        <ele>23.845</ele>
        <time>2018-12-29T09:16:57Z</time>
      </trkpt>
      <trkpt lat="37.819310" lon="-122.254060">
        <ele>22.054</ele>
        <time>2018-12-29T09:17:17Z</time>
      </trkpt>
      <trkpt lat="37.819380" lon="-122.254160">
        <ele>22.488</ele>
        <time>2018-12-29T09:17:37Z</time>
      </trkpt>
      <trkpt lat="37.819390" lon="-122.254170">
        <ele>22.471</ele>
        <time>2018-12-29T09:17:57Z</time>
      </trkpt>
      <trkpt lat="37.819390" lon="-122.254180">
        <ele>22.415</ele>
        <time>2018-12-29T09:18:17Z</time>
      </trkpt>
      <trkpt lat="37.819580" lon="-122.254470">
        <ele>22.618</ele>
        <time>2018-12-29T09:18:37Z</time>
      </trkpt>
      <trkpt lat="37.819640" lon="-122.254560">
        <ele>24.118</ele>
        <time>2018-12-29T09:18:57Z</time>
      </trkpt>
      <trkpt lat="37.819910" lon="-122.254950">
        <ele>32.398</ele>
        <time>2018-12-29T09:19:17Z</time>
      </trkpt>
      <trkpt lat="37.820060" lon="-122.255200">
        <ele>32.117</ele>
        <time>2018-12-29T09:19:37Z</time>
      </trkpt>
      <trkpt lat="37.820700" lon="-122.256310">
        <ele>30.108</ele>
        <time>2018-12-29T09:19:57Z</time>
      </trkpt>
      <trkpt lat="37.821040" lon="-122.256940">
        <ele>23.954</ele>
        <time>2018-12-29T09:20:17Z</time>
      </trkpt>
      <trkpt lat="37.821210" lon="-122.257300">
        <ele>16.082</ele>
        <time>2018-12-29T09:20:37Z</time>
      </trkpt>
      <trkpt lat="37.821420" lon="-122.257720">
        <ele>16.947</ele>
        <time>2018-12-29T09:20:57Z</time>
      </trkpt>
      <trkpt lat="37.821640" lon="-122.258170">
        <ele>19.586</ele>
        <time>2018-12-29T09:21:17Z</time>
      </trkpt>
      <trkpt lat="37.821660" lon="-122.258220">
        <ele>19.670</ele>
        <time>2018-12-29T09:21:37Z</time>
      </trkpt>
      <trkpt lat="37.821900" lon="-122.258790">
        <ele>19.793</ele>
        <time>2018-12-29T09:21:57Z</time>
      </trkpt>
      <trkpt lat="37.822060" lon="-122.259200">
        <ele>19.967</ele>
        <time>2018-12-29T09:22:17Z</time>
      </trkpt>
      <trkpt lat="37.822230" lon="-122.259620">
        <ele>20.730</ele>
        <time>2018-12-29T09:22:37Z</time>
      </trkpt>
      <trkpt lat="37.822450" lon="-122.260230">
        <ele>26.185</ele>
        <time>2018-12-29T09:22:57Z</time>
      </trkpt>
      <trkpt lat="37.822560" lon="-122.260550">
        <ele>27.689</ele>
        <time>2018-12-29T09:23:17Z</time>
      </trkpt>
      <trkpt lat="37.822670" lon="-122.260910">
        <ele>26.817</ele>
        <time>2018-12-29T09:23:37Z</time>
      </trkpt>
      <trkpt lat="37.822830" lon="-122.261410">
        <ele>27.508</ele>
        <time>2018-12-29T09:23:57Z</time>
      </trkpt>
      <trkpt lat="37.822990" lon="-122.262030">
        <ele>20.861</ele>
        <time>2018-12-29T09:24:17Z</time>
      </trkpt>
      <trkpt lat="37.823130" lon="-122.262620">
        <ele>26.789</ele>
        <time>2018-12-29T09:24:37Z</time>
      </trkpt>
      <trkpt lat="37.823250" lon="-122.263210">
        <ele>25.954</ele>
        <time>2018-12-29T09:24:57Z</time>
      </trkpt>
      <trkpt lat="37.823370" lon="-122.263810">
        <ele>25.883</ele>
        <time>2018-12-29T09:25:17Z</time>
      </trkpt>
      <trkpt lat="37.823420" lon="-122.264030">
        <ele>25.837</ele>
        <time>2018-12-29T09:25:37Z</time>
      </trkpt>
      <trkpt lat="37.823460" lon="-122.264240">
        <ele>25.760</ele>
        <time>2018-12-29T09:25:57Z</time>
      </trkpt>
      <trkpt lat="37.823500" lon="-122.264480">
        <ele>25.934</ele>
        <time>2018-12-29T09:26:17Z</time>
      </trkpt>
      <trkpt lat="37.823560" lon="-122.264800">
        <ele>25.937</ele>
        <time>2018-12-29T09:26:37Z</time>
      </trkpt>
      <trkpt lat="37.823720" lon="-122.265500">
        <ele>24.131</ele>
        <time>2018-12-29T09:26:57Z</time>
      </trkpt>
      <trkpt lat="37.823810" lon="-122.265890">
        <ele>18.861</ele>
        <time>2018-12-29T09:27:17Z</time>
      </trkpt>
      <trkpt lat="37.823820" lon="-122.265900">
        <ele>18.707</ele>
        <time>2018-12-29T09:27:37Z</time>
      </trkpt>
      <trkpt lat="37.823830" lon="-122.265970">
        <ele>18.308</ele>
        <time>2018-12-29T09:27:57Z</time>
      </trkpt>
      <trkpt lat="37.823860" lon="-122.266090">
        <ele>21.436</ele>
        <time>2018-12-29T09:28:17Z</time>
      </trkpt>
      <trkpt lat="37.824160" lon="-122.267380">
        <ele>24.414</ele>
        <time>2018-12-29T09:28:37Z</time>
      </trkpt>
      <trkpt lat="37.824170" lon="-122.267400">
        <ele>24.499</ele>
        <time>2018-12-29T09:28:57Z</time>
      </trkpt>
      <trkpt lat="37.824180" lon="-122.267430">
        <ele>24.418</ele>
        <time>2018-12-29T09:29:17Z</time>
      </trkpt>
      <trkpt lat="37.824210" lon="-122.267590">
        <ele>25.022</ele>
        <time>2018-12-29T09:29:37Z</time>
      </trkpt>
      <trkpt lat="37.824280" lon="-122.267870">
        <ele>18.925</ele>
        <time>2018-12-29T09:29:57Z</time>
      </trkpt>
      <trkpt lat="37.824310" lon="-122.267990">
        <ele>17.629</ele>
        <time>2018-12-29T09:30:17Z</time>
      </trkpt>
      <trkpt lat="37.824310" lon="-122.268000">
        <ele>17.672</ele>
        <time>2018-12-29T09:30:37Z</time>
      </trkpt>
      <trkpt lat="37.824330" lon="-122.268060">
        <ele>17.748</ele>
        <time>2018-12-29T09:30:57Z</time>
      </trkpt>
      <trkpt lat="37.824500" lon="-122.268780">
        <ele>24.461</ele>
        <time>2018-12-29T09:31:17Z</time>
      </trkpt>
      <trkpt lat="37.824520" lon="-122.268870">
        <ele>24.617</ele>
        <time>2018-12-29T09:31:37Z</time>
      </trkpt>
      <trkpt lat="37.824550" lon="-122.268980">
        <ele>24.808</ele>
        <time>2018-12-29T09:31:57Z</time>
      </trkpt>
      <trkpt lat="37.824550" lon="-122.269010">
        <ele>24.897</ele>
        <time>2018-12-29T09:32:17Z</time>
      </trkpt>
      <trkpt lat="37.824630" lon="-122.269320">
        <ele>24.315</ele>
        <time>2018-12-29T09:32:37Z</time>
      </trkpt>
      <trkpt lat="37.824630" lon="-122.269330">
        <ele>24.010</ele>
        <time>2018-12-29T09:32:57Z</time>
      </trkpt>
      <trkpt lat="37.824640" lon="-122.269370">
        <ele>23.059</ele>
        <time>2018-12-29T09:33:17Z</time>
      </trkpt>
      <trkpt lat="37.824670" lon="-122.269520">
        <ele>19.593</ele>
        <time>2018-12-29T09:33:37Z</time>
      </trkpt>
      <trkpt lat="37.824710" lon="-122.269700">
        <ele>19.556</ele>
        <time>2018-12-29T09:33:57Z</time>
      </trkpt>
      <trkpt lat="37.824720" lon="-122.269740">
        <ele>20.030</ele>
        <time>2018-12-29T09:34:17Z</time>
      </trkpt>
      <trkpt lat="37.824770" lon="-122.269950">
        <ele>22.823</ele>
        <time>2018-12-29T09:34:37Z</time>
      </trkpt>
      <trkpt lat="37.825250" lon="-122.271940">
        <ele>19.623</ele>
        <time>2018-12-29T09:34:57Z</time>
      </trkpt>
      <trkpt lat="37.825310" lon="-122.272230">
        <ele>18.683</ele>
        <time>2018-12-29T09:35:17Z</time>
      </trkpt>
      <trkpt lat="37.825320" lon="-122.272240">
        <ele>18.811</ele>
        <time>2018-12-29T09:35:37Z</time>
      </trkpt>
      <trkpt lat="37.825320" lon="-122.272250">
        <ele>19.008</ele>
        <time>2018-12-29T09:35:57Z</time>
      </trkpt>
      <trkpt lat="37.825410" lon="-122.272650">
        <ele>22.695</ele>
        <time>2018-12-29T09:36:17Z</time>
      </trkpt>
      <trkpt lat="37.825480" lon="-122.272950">
        <ele>22.163</ele>
        <time>2018-12-29T09:36:37Z</time>
      </trkpt>
      <trkpt lat="37.825600" lon="-122.273480">
        <ele>21.718</ele>
        <time>2018-12-29T09:36:57Z</time>
      </trkpt>
      <trkpt lat="37.825620" lon="-122.273570">
        <ele>21.617</ele>
        <time>2018-12-29T09:37:17Z</time>
      </trkpt>
      <trkpt lat="37.825770" lon="-122.274230">
        <ele>20.671</ele>
        <time>2018-12-29T09:37:37Z</time>
      </trkpt>
      <trkpt lat="37.825980" lon="-122.275100">
        <ele>13.734</ele>
        <time>2018-12-29T09:37:57Z</time>
      </trkpt>
      <trkpt lat="37.826080" lon="-122.275520">
        <ele>19.158</ele>
        <time>2018-12-29T09:38:17Z</time>
      </trkpt>
      <trkpt lat="37.826390" lon="-122.276840">
        <ele>17.781</ele>
        <time>2018-12-29T09:38:37Z</time>
      </trkpt>
      <trkpt lat="37.826550" lon="-122.277490">
        <ele>17.267</ele>
        <time>2018-12-29T09:38:57Z</time>
      </trkpt>
      <trkpt lat="37.826580" lon="-122.277590">
        <ele>16.681</ele>
        <time>2018-12-29T09:39:17Z</time>
      </trkpt>
      <trkpt lat="37.826780" lon="-122.278450">
        <ele>10.819</ele>
        <time>2018-12-29T09:39:37Z</time>
      </trkpt>
      <trkpt lat="37.826810" lon="-122.278590">
        <ele>10.708</ele>
        <time>2018-12-29T09:39:57Z</time>
      </trkpt>
      <trkpt lat="37.826930" lon="-122.279120">
        <ele>10.449</ele>
        <time>2018-12-29T09:40:17Z</time>
      </trkpt>
      <trkpt lat="37.827090" lon="-122.279790">
        <ele>9.767</ele>
        <time>2018-12-29T09:40:37Z</time>
      </trkpt>
      <trkpt lat="37.827090" lon="-122.279810">
        <ele>9.712</ele>
        <time>2018-12-29T09:40:57Z</time>
      </trkpt>
      <trkpt lat="37.827340" lon="-122.280870">
        <ele>8.951</ele>
        <time>2018-12-29T09:41:17Z</time>
      </trkpt>
      <trkpt lat="37.827410" lon="-122.281140">
        <ele>9.135</ele>
        <time>2018-12-29T09:41:37Z</time>
      </trkpt>
      <trkpt lat="37.827410" lon="-122.281150">
        <ele>9.138</ele>
        <time>2018-12-29T09:41:57Z</time>
      </trkpt>
      <trkpt lat="37.827430" lon="-122.281210">
        <ele>9.242</ele>
        <time>2018-12-29T09:42:17Z</time>
      </trkpt>
      <trkpt lat="37.827450" lon="-122.281350">
        <ele>11.085</ele>
        <time>2018-12-29T09:42:37Z</time>
      </trkpt>
      <trkpt lat="37.827480" lon="-122.281490">
        <ele>13.759</ele>
        <time>2018-12-29T09:42:57Z</time>
      </trkpt>
      <trkpt lat="37.827500" lon="-122.281630">
        <ele>15.103</ele>
        <time>2018-12-29T09:43:17Z</time>
      </trkpt>
      <trkpt lat="37.827520" lon="-122.281770">
        <ele>16.023</ele>
        <time>2018-12-29T09:43:37Z</time>
      </trkpt>
      <trkpt lat="37.827530" lon="-122.281890">
        <ele>16.208</ele>
        <time>2018-12-29T09:43:57Z</time>
      </trkpt>
      <trkpt lat="37.827540" lon="-122.281980">
        <ele>16.118</ele>
        <time>2018-12-29T09:44:17Z</time>
      </trkpt>
      <trkpt lat="37.827560" lon="-122.282180">
        <ele>15.916</ele>
        <time>2018-12-29T09:44:37Z</time>
      </trkpt>
      <trkpt lat="37.827570" lon="-122.282330">
        <ele>15.881</ele>
        <time>2018-12-29T09:44:57Z</time>
      </trkpt>
      <trkpt lat="37.827570" lon="-122.282480">
        <ele>15.890</ele>
        <time>2018-12-29T09:45:17Z</time>
      </trkpt>
      <trkpt lat="37.827570" lon="-122.282690">
        <ele>15.694</ele>
        <time>2018-12-29T09:45:37Z</time>
      </trkpt>
      <trkpt lat="37.827570" lon="-122.282860">
        <ele>15.337</ele>
        <time>2018-12-29T09:45:57Z</time>
      </trkpt>
      <trkpt lat="37.827570" lon="-122.282970">
        <ele>14.731</ele>
        <time>2018-12-29T09:46:17Z</time>
      </trkpt>
      <trkpt lat="37.827560" lon="-122.283020">
        <ele>14.374</ele>
        <time>2018-12-29T09:46:37Z</time>
      </trkpt>
      <trkpt lat="37.827560" lon="-122.283160">
        <ele>13.145</ele>
        <time>2018-12-29T09:46:57Z</time>
      </trkpt>
      <trkpt lat="37.827540" lon="-122.283320">
        <ele>10.947</ele>
        <time>2018-12-29T09:47:17Z</time>
      </trkpt>
      <trkpt lat="37.827510" lon="-122.283540">
        <ele>8.511</ele>
        <time>2018-12-29T09:47:37Z</time>
      </trkpt>
      <trkpt lat="37.827500" lon="-122.283650">
        <ele>8.708</ele>
        <time>2018-12-29T09:47:57Z</time>
      </trkpt>
      <trkpt lat="37.827480" lon="-122.283780">
        <ele>9.067</ele>
        <time>2018-12-29T09:48:17Z</time>
      </trkpt>
      <trkpt lat="37.827450" lon="-122.283970">
        <ele>9.455</ele>
        <time>2018-12-29T09:48:37Z</time>
      </trkpt>
      <trkpt lat="37.827410" lon="-122.284150">
        <ele>9.630</ele>
        <time>2018-12-29T09:48:57Z</time>
      </trkpt>
      <trkpt lat="37.827320" lon="-122.284570">
        <ele>7.929</ele>
        <time>2018-12-29T09:49:17Z</time>
      </trkpt>
      <trkpt lat="37.827310" lon="-122.284630">
        <ele>7.543</ele>
        <time>2018-12-29T09:49:37Z</time>
      </trkpt>
      <trkpt lat="37.827290" lon="-122.284690">
        <ele>7.346</ele>
        <time>2018-12-29T09:49:57Z</time>
      </trkpt>
      <trkpt lat="37.827050" lon="-122.285730">
        <ele>5.780</ele>
        <time>2018-12-29T09:50:17Z</time>
      </trkpt>
      <trkpt lat="37.826800" lon="-122.286770">
        <ele>5.083</ele>
        <time>2018-12-29T09:50:37Z</time>
      </trkpt>
      <trkpt lat="37.826805" lon="-122.286766">
        <ele>5.079</ele>
        <time>2018-12-29T09:50:57Z</time>
      </trkpt>
      <trkpt lat="37.826750" lon="-122.286850">
        <ele>4.905</ele>
        <time>2018-12-29T09:51:17Z</time>
      </trkpt>
      <trkpt lat="37.826730" lon="-122.286880">
        <ele>4.925</ele>
        <time>2018-12-29T09:51:37Z</time>
      </trkpt>
      <trkpt lat="37.826720" lon="-122.286910">
        <ele>4.908</ele>
        <time>2018-12-29T09:51:57Z</time>
      </trkpt>
      <trkpt lat="37.826700" lon="-122.286980">
        <ele>4.970</ele>
        <time>2018-12-29T09:52:17Z</time>
      </trkpt>
      <trkpt lat="37.826640" lon="-122.287230">
        <ele>4.858</ele>
        <time>2018-12-29T09:52:37Z</time>
      </trkpt>
      <trkpt lat="37.826610" lon="-122.287400">
        <ele>4.683</ele>
        <time>2018-12-29T09:52:57Z</time>
      </trkpt>
      <trkpt lat="37.826570" lon="-122.287630">
        <ele>4.372</ele>
        <time>2018-12-29T09:53:17Z</time>
      </trkpt>
      <trkpt lat="37.826550" lon="-122.287830">
        <ele>4.236</ele>
        <time>2018-12-29T09:53:37Z</time>
      </trkpt>
      <trkpt lat="37.826530" lon="-122.288130">
        <ele>4.069</ele>
        <time>2018-12-29T09:53:57Z</time>
      </trkpt>
      <trkpt lat="37.826530" lon="-122.288340">
        <ele>3.973</ele>
        <time>2018-12-29T09:54:17Z</time>
      </trkpt>
      <trkpt lat="37.826530" lon="-122.288480">
        <ele>3.846</ele>
        <time>2018-12-29T09:54:37Z</time>
      </trkpt>
      <trkpt lat="37.826530" lon="-122.288610">
        <ele>3.815</ele>
        <time>2018-12-29T09:54:57Z</time>
      </trkpt>
      <trkpt lat="37.826550" lon="-122.288790">
        <ele>3.765</ele>
        <time>2018-12-29T09:55:17Z</time>
      </trkpt>
      <trkpt lat="37.826570" lon="-122.289000">
        <ele>3.711</ele>
        <time>2018-12-29T09:55:37Z</time>
      </trkpt>
      <trkpt lat="37.826590" lon="-122.289120">
        <ele>3.808</ele>
        <time>2018-12-29T09:55:57Z</time>
      </trkpt>
      <trkpt lat="37.826620" lon="-122.289330">
        <ele>3.944</ele>
        <time>2018-12-29T09:56:17Z</time>
      </trkpt>
      <trkpt lat="37.826650" lon="-122.289490">
        <ele>3.942</ele>
        <time>2018-12-29T09:56:37Z</time>
      </trkpt>
      <trkpt lat="37.826690" lon="-122.289630">
        <ele>3.977</ele>
        <time>2018-12-29T09:56:57Z</time>
      </trkpt>
      <trkpt lat="37.826740" lon="-122.289780">
        <ele>4.256</ele>
        <time>2018-12-29T09:57:17Z</time>
      </trkpt>
      <trkpt lat="37.826770" lon="-122.289890">
        <ele>4.440</ele>
        <time>2018-12-29T09:57:37Z</time>
      </trkpt>
      <trkpt lat="37.826840" lon="-122.290100">
        <ele>4.743</ele>
        <time>2018-12-29T09:57:57Z</time>
      </trkpt>
      <trkpt lat="37.826900" lon="-122.290260">
        <ele>4.787</ele>
        <time>2018-12-29T09:58:17Z</time>
      </trkpt>
      <trkpt lat="37.826960" lon="-122.290400">
        <ele>4.710</ele>
        <time>2018-12-29T09:58:37Z</time>
      </trkpt>
      <trkpt lat="37.827040" lon="-122.290570">
        <ele>4.568</ele>
        <time>2018-12-29T09:58:57Z</time>
      </trkpt>
      <trkpt lat="37.827120" lon="-122.290730">
        <ele>4.442</ele>
        <time>2018-12-29T09:59:17Z</time>
      </trkpt>
      <trkpt lat="37.827230" lon="-122.290940">
        <ele>4.026</ele>
        <time>2018-12-29T09:59:37Z</time>
      </trkpt>
      <trkpt lat="37.827240" lon="-122.290960">
        <ele>3.908</ele>
        <time>2018-12-29T09:59:57Z</time>
      </trkpt>
      <trkpt lat="37.827320" lon="-122.291100">
        <ele>3.559</ele>
        <time>2018-12-29T10:00:17Z</time>
      </trkpt>
      <trkpt lat="37.827480" lon="-122.291400">
        <ele>3.037</ele>
        <time>2018-12-29T10:00:37Z</time>
      </trkpt>
      <trkpt lat="37.827530" lon="-122.291510">
        <ele>3.192</ele>
        <time>2018-12-29T10:00:57Z</time>
      </trkpt>
      <trkpt lat="37.827630" lon="-122.291710">
        <ele>3.011</ele>
        <time>2018-12-29T10:01:17Z</time>
      </trkpt>
      <trkpt lat="37.827730" lon="-122.291930">
        <ele>3.195</ele>
        <time>2018-12-29T10:01:37Z</time>
      </trkpt>
      <trkpt lat="37.827760" lon="-122.291990">
        <ele>3.028</ele>
        <time>2018-12-29T10:01:57Z</time>
      </trkpt>
      <trkpt lat="37.827820" lon="-122.292140">
        <ele>3.012</ele>
        <time>2018-12-29T10:02:17Z</time>
      </trkpt>
      <trkpt lat="37.827870" lon="-122.292280">
        <ele>2.885</ele>
        <time>2018-12-29T10:02:37Z</time>
      </trkpt>
      <trkpt lat="37.827920" lon="-122.292440">
        <ele>2.766</ele>
        <time>2018-12-29T10:02:57Z</time>
      </trkpt>
      <trkpt lat="37.827980" lon="-122.292650">
        <ele>3.129</ele>
        <time>2018-12-29T10:03:17Z</time>
      </trkpt>
      <trkpt lat="37.828010" lon="-122.292800">
        <ele>3.321</ele>
        <time>2018-12-29T10:03:37Z</time>
      </trkpt>
      <trkpt lat="37.828040" lon="-122.292950">
        <ele>3.408</ele>
        <time>2018-12-29T10:03:57Z</time>
      </trkpt>
      <trkpt lat="37.828070" lon="-122.293120">
        <ele>3.539</ele>
        <time>2018-12-29T10:04:17Z</time>
      </trkpt>
      <trkpt lat="37.828070" lon="-122.293180">
        <ele>3.497</ele>
        <time>2018-12-29T10:04:37Z</time>
      </trkpt>
      <trkpt lat="37.828080" lon="-122.293240">
        <ele>3.422</ele>
        <time>2018-12-29T10:04:57Z</time>
      </trkpt>
      <trkpt lat="37.828090" lon="-122.293390">
        <ele>3.251</ele>
        <time>2018-12-29T10:05:17Z</time>
      </trkpt>
      <trkpt lat="37.828100" lon="-122.293480">
        <ele>3.015</ele>
        <time>2018-12-29T10:05:37Z</time>
      </trkpt>
      <trkpt lat="37.828100" lon="-122.293540">
        <ele>2.798</ele>
        <time>2018-12-29T10:05:57Z</time>
      </trkpt>
      <trkpt lat="37.828100" lon="-122.293660">
        <ele>2.392</ele>
        <time>2018-12-29T10:06:17Z</time>
      </trkpt>
      <trkpt lat="37.828100" lon="-122.293780">
        <ele>1.925</ele>
        <time>2018-12-29T10:06:37Z</time>
      </trkpt>
      <trkpt lat="37.828090" lon="-122.293910">
        <ele>2.174</ele>
        <time>2018-12-29T10:06:57Z</time>
      </trkpt>
      <trkpt lat="37.828080" lon="-122.294070">
        <ele>2.256</ele>
        <time>2018-12-29T10:07:17Z</time>
      </trkpt>
      <trkpt lat="37.828070" lon="-122.294180">
        <ele>2.421</ele>
        <time>2018-12-29T10:07:37Z</time>
      </trkpt>
      <trkpt lat="37.828040" lon="-122.294400">
        <ele>2.708</ele>
        <time>2018-12-29T10:07:57Z</time>
      </trkpt>
      <trkpt lat="37.828030" lon="-122.294420">
        <ele>2.740</ele>
        <time>2018-12-29T10:08:17Z</time>
      </trkpt>
      <trkpt lat="37.827990" lon="-122.294620">
        <ele>2.858</ele>
        <time>2018-12-29T10:08:37Z</time>
      </trkpt>
      <trkpt lat="37.827910" lon="-122.294900">
        <ele>3.463</ele>
        <time>2018-12-29T10:08:57Z</time>
      </trkpt>
      <trkpt lat="37.827840" lon="-122.295100">
        <ele>4.322</ele>
        <time>2018-12-29T10:09:17Z</time>
      </trkpt>
      <trkpt lat="37.827690" lon="-122.295450">
        <ele>3.896</ele>
        <time>2018-12-29T10:09:37Z</time>
      </trkpt>
      <trkpt lat="37.827470" lon="-122.295980">
        <ele>3.859</ele>
        <time>2018-12-29T10:09:57Z</time>
      </trkpt>
      <trkpt lat="37.827340" lon="-122.296290">
        <ele>3.723</ele>
        <time>2018-12-29T10:10:17Z</time>
      </trkpt>
      <trkpt lat="37.827290" lon="-122.296420">
        <ele>4.156</ele>
        <time>2018-12-29T10:10:37Z</time>
      </trkpt>
      <trkpt lat="37.827170" lon="-122.296810">
        <ele>4.382</ele>
        <time>2018-12-29T10:10:57Z</time>
      </trkpt>
      <trkpt lat="37.827050" lon="-122.297280">
        <ele>4.043</ele>
        <time>2018-12-29T10:11:17Z</time>
      </trkpt>
      <trkpt lat="37.826860" lon="-122.298090">
        <ele>4.017</ele>
        <time>2018-12-29T10:11:37Z</time>
      </trkpt>
      <trkpt lat="37.826550" lon="-122.299540">
        <ele>4.008</ele>
        <time>2018-12-29T10:11:57Z</time>
      </trkpt>
      <trkpt lat="37.826440" lon="-122.300010">
        <ele>3.931</ele>
        <time>2018-12-29T10:12:17Z</time>
      </trkpt>
      <trkpt lat="37.826400" lon="-122.300240">
        <ele>4.059</ele>
        <time>2018-12-29T10:12:37Z</time>
      </trkpt>
      <trkpt lat="37.826390" lon="-122.300300">
        <ele>4.064</ele>
        <time>2018-12-29T10:12:57Z</time>
      </trkpt>
      <trkpt lat="37.826390" lon="-122.300340">
        <ele>4.043</ele>
        <time>2018-12-29T10:13:17Z</time>
      </trkpt>
      <trkpt lat="37.826400" lon="-122.300420">
        <ele>4.087</ele>
        <time>2018-12-29T10:13:37Z</time>
      </trkpt>
      <trkpt lat="37.826440" lon="-122.300650">
        <ele>3.720</ele>
        <time>2018-12-29T10:13:57Z</time>
      </trkpt>
      <trkpt lat="37.826320" lon="-122.301030">
        <ele>3.874</ele>
        <time>2018-12-29T10:14:17Z</time>
      </trkpt>
      <trkpt lat="37.825990" lon="-122.302460">
        <ele>4.077</ele>
        <time>2018-12-29T10:14:37Z</time>
      </trkpt>
      <trkpt lat="37.825570" lon="-122.304440">
        <ele>4.096</ele>
        <time>2018-12-29T10:14:57Z</time>
      </trkpt>
      <trkpt lat="37.825510" lon="-122.304760">
        <ele>4.231</ele>
        <time>2018-12-29T10:15:17Z</time>
      </trkpt>
      <trkpt lat="37.825370" lon="-122.305770">
        <ele>4.224</ele>
        <time>2018-12-29T10:15:37Z</time>
      </trkpt>
      <trkpt lat="37.825350" lon="-122.305910">
        <ele>4.208</ele>
        <time>2018-12-29T10:15:57Z</time>
      </trkpt>
      <trkpt lat="37.825350" lon="-122.305920">
        <ele>4.212</ele>
        <time>2018-12-29T10:16:17Z</time>
      </trkpt>
      <trkpt lat="37.825340" lon="-122.305990">
        <ele>4.260</ele>
        <time>2018-12-29T10:16:37Z</time>
      </trkpt>
      <trkpt lat="37.825320" lon="-122.306070">
        <ele>4.295</ele>
        <time>2018-12-29T10:16:57Z</time>
      </trkpt>
      <trkpt lat="37.825320" lon="-122.306080">
        <ele>4.254</ele>
        <time>2018-12-29T10:17:17Z</time>
      </trkpt>
      <trkpt lat="37.825280" lon="-122.306440">
        <ele>3.948</ele>
        <time>2018-12-29T10:17:37Z</time>
      </trkpt>
      <trkpt lat="37.825180" lon="-122.307470">
        <ele>4.071</ele>
        <time>2018-12-29T10:17:57Z</time>
      </trkpt>
      <trkpt lat="37.825050" lon="-122.309060">
        <ele>3.765</ele>
        <time>2018-12-29T10:18:17Z</time>
      </trkpt>
      <trkpt lat="37.825040" lon="-122.309410">
        <ele>3.498</ele>
        <time>2018-12-29T10:18:37Z</time>
      </trkpt>
      <trkpt lat="37.825040" lon="-122.309440">
        <ele>3.481</ele>
        <time>2018-12-29T10:18:57Z</time>
      </trkpt>
      <trkpt lat="37.825040" lon="-122.309550">
        <ele>3.361</ele>
        <time>2018-12-29T10:19:17Z</time>
      </trkpt>
      <trkpt lat="37.825040" lon="-122.309560">
        <ele>3.317</ele>
        <time>2018-12-29T10:19:37Z</time>
      </trkpt>
      <trkpt lat="37.825030" lon="-122.310430">
        <ele>3.008</ele>
        <time>2018-12-29T10:19:57Z</time>
      </trkpt>
      <trkpt lat="37.825060" lon="-122.311500">
        <ele>3.081</ele>
        <time>2018-12-29T10:20:17Z</time>
      </trkpt>
      <trkpt lat="37.825060" lon="-122.311780">
        <ele>3.199</ele>
        <time>2018-12-29T10:20:37Z</time>
      </trkpt>
      <trkpt lat="37.825090" lon="-122.312140">
        <ele>3.324</ele>
        <time>2018-12-29T10:20:57Z</time>
      </trkpt>
      <trkpt lat="37.825040" lon="-122.312930">
        <ele>3.323</ele>
        <time>2018-12-29T10:21:17Z</time>
      </trkpt>
      <trkpt lat="37.825010" lon="-122.313170">
        <ele>3.487</ele>
        <time>2018-12-29T10:21:37Z</time>
      </trkpt>
      <trkpt lat="37.824970" lon="-122.313500">
        <ele>3.920</ele>
        <time>2018-12-29T10:21:57Z</time>
      </trkpt>
      <trkpt lat="37.824870" lon="-122.314020">
        <ele>4.224</ele>
        <time>2018-12-29T10:22:17Z</time>
      </trkpt>
      <trkpt lat="37.824820" lon="-122.314310">
        <ele>3.637</ele>
        <time>2018-12-29T10:22:37Z</time>
      </trkpt>
      <trkpt lat="37.824780" lon="-122.314490">
        <ele>3.442</ele>
        <time>2018-12-29T10:22:57Z</time>
      </trkpt>
      <trkpt lat="37.824740" lon="-122.314680">
        <ele>3.322</ele>
        <time>2018-12-29T10:23:17Z</time>
      </trkpt>
      <trkpt lat="37.824720" lon="-122.314750">
        <ele>3.314</ele>
        <time>2018-12-29T10:23:37Z</time>
      </trkpt>
      <trkpt lat="37.824670" lon="-122.314990">
        <ele>3.308</ele>
        <time>2018-12-29T10:23:57Z</time>
      </trkpt>
      <trkpt lat="37.824550" lon="-122.315530">
        <ele>3.297</ele>
        <time>2018-12-29T10:24:17Z</time>
      </trkpt>
      <trkpt lat="37.824330" lon="-122.316630">
        <ele>2.965</ele>
        <time>2018-12-29T10:24:37Z</time>
      </trkpt>
      <trkpt lat="37.824040" lon="-122.317770">
        <ele>2.760</ele>
        <time>2018-12-29T10:24:57Z</time>
      </trkpt>
      <trkpt lat="37.823980" lon="-122.318090">
        <ele>2.729</ele>
        <time>2018-12-29T10:25:17Z</time>
      </trkpt>
      <trkpt lat="37.823780" lon="-122.318690">
        <ele>2.953</ele>
        <time>2018-12-29T10:25:37Z</time>
      </trkpt>
      <trkpt lat="37.823540" lon="-122.319440">
        <ele>3.256</ele>
        <time>2018-12-29T10:25:57Z</time>
      </trkpt>
      <trkpt lat="37.823350" lon="-122.319890">
        <ele>3.670</ele>
        <time>2018-12-29T10:26:17Z</time>
      </trkpt>
      <trkpt lat="37.823280" lon="-122.320080">
        <ele>3.843</ele>
        <time>2018-12-29T10:26:37Z</time>
      </trkpt>
      <trkpt lat="37.823150" lon="-122.320420">
        <ele>4.113</ele>
        <time>2018-12-29T10:26:57Z</time>
      </trkpt>
      <trkpt lat="37.823050" lon="-122.320730">
        <ele>4.243</ele>
        <time>2018-12-29T10:27:17Z</time>
      </trkpt>
      <trkpt lat="37.822960" lon="-122.321090">
        <ele>4.207</ele>
        <time>2018-12-29T10:27:37Z</time>
      </trkpt>
      <trkpt lat="37.822840" lon="-122.321600">
        <ele>4.208</ele>
        <time>2018-12-29T10:27:57Z</time>
      </trkpt>
      <trkpt lat="37.822740" lon="-122.322060">
        <ele>4.094</ele>
        <time>2018-12-29T10:28:17Z</time>
      </trkpt>
      <trkpt lat="37.822660" lon="-122.322520">
        <ele>4.012</ele>
        <time>2018-12-29T10:28:37Z</time>
      </trkpt>
      <trkpt lat="37.822590" lon="-122.322980">
        <ele>4.127</ele>
        <time>2018-12-29T10:28:57Z</time>
      </trkpt>
      <trkpt lat="37.822510" lon="-122.323670">
        <ele>3.886</ele>
        <time>2018-12-29T10:29:17Z</time>
      </trkpt>
      <trkpt lat="37.822450" lon="-122.324310">
        <ele>3.140</ele>
        <time>2018-12-29T10:29:37Z</time>
      </trkpt>
      <trkpt lat="37.822410" lon="-122.324850">
        <ele>3.793</ele>
        <time>2018-12-29T10:29:57Z</time>
      </trkpt>
      <trkpt lat="37.822340" lon="-122.325820">
        <ele>4.967</ele>
        <time>2018-12-29T10:30:17Z</time>
      </trkpt>
      <trkpt lat="37.822300" lon="-122.326390">
        <ele>5.170</ele>
        <time>2018-12-29T10:30:37Z</time>
      </trkpt>
      <trkpt lat="37.822230" lon="-122.327250">
        <ele>3.196</ele>
        <time>2018-12-29T10:30:57Z</time>
      </trkpt>
      <trkpt lat="37.822170" lon="-122.328010">
        <ele>2.431</ele>
        <time>2018-12-29T10:31:17Z</time>
      </trkpt>
      <trkpt lat="37.822110" lon="-122.328760">
        <ele>1.624</ele>
        <time>2018-12-29T10:31:37Z</time>
      </trkpt>
      <trkpt lat="37.822050" lon="-122.329460">
        <ele>0.108</ele>
        <time>2018-12-29T10:31:57Z</time>
      </trkpt>
      <trkpt lat="37.822000" lon="-122.329970">
        <ele>0.022</ele>
        <time>2018-12-29T10:32:17Z</time>
      </trkpt>
      <trkpt lat="37.821950" lon="-122.330490">
        <ele>0.030</ele>
        <time>2018-12-29T10:32:37Z</time>
      </trkpt>
      <trkpt lat="37.821870" lon="-122.331170">
        <ele>0.055</ele>
        <time>2018-12-29T10:32:57Z</time>
      </trkpt>
      <trkpt lat="37.821800" lon="-122.331770">
        <ele>0.054</ele>
        <time>2018-12-29T10:33:17Z</time>
      </trkpt>
      <trkpt lat="37.821730" lon="-122.332310">
        <ele>0.098</ele>
        <time>2018-12-29T10:33:37Z</time>
      </trkpt>
      <trkpt lat="37.821660" lon="-122.332880">
        <ele>0.151</ele>
        <time>2018-12-29T10:33:57Z</time>
      </trkpt>
      <trkpt lat="37.821540" lon="-122.333690">
        <ele>0.155</ele>
        <time>2018-12-29T10:34:17Z</time>
      </trkpt>
      <trkpt lat="37.821220" lon="-122.335880">
        <ele>0.168</ele>
        <time>2018-12-29T10:34:37Z</time>
      </trkpt>
      <trkpt lat="37.820600" lon="-122.340120">
        <ele>0.115</ele>
        <time>2018-12-29T10:34:57Z</time>
      </trkpt>
      <trkpt lat="37.820110" lon="-122.343450">
        <ele>0.165</ele>
        <time>2018-12-29T10:35:17Z</time>
      </trkpt>
      <trkpt lat="37.819680" lon="-122.346430">
        <ele>0.111</ele>
        <time>2018-12-29T10:35:37Z</time>
      </trkpt>
      <trkpt lat="37.819360" lon="-122.348660">
        <ele>0.108</ele>
        <time>2018-12-29T10:35:57Z</time>
      </trkpt>
      <trkpt lat="37.819150" lon="-122.350050">
        <ele>-0.014</ele>
        <time>2018-12-29T10:36:17Z</time>
      </trkpt>
      <trkpt lat="37.819040" lon="-122.350660">
        <ele>0.012</ele>
        <time>2018-12-29T10:36:37Z</time>
      </trkpt>
      <trkpt lat="37.818980" lon="-122.350990">
        <ele>0.017</ele>
        <time>2018-12-29T10:36:57Z</time>
      </trkpt>
      <trkpt lat="37.818910" lon="-122.351350">
        <ele>0.096</ele>
        <time>2018-12-29T10:37:17Z</time>
      </trkpt>
      <trkpt lat="37.818830" lon="-122.351650">
        <ele>0.040</ele>
        <time>2018-12-29T10:37:37Z</time>
      </trkpt>
      <trkpt lat="37.818740" lon="-122.352000">
        <ele>0.093</ele>
        <time>2018-12-29T10:37:57Z</time>
      </trkpt>
      <trkpt lat="37.818670" lon="-122.352240">
        <ele>0.067</ele>
        <time>2018-12-29T10:38:17Z</time>
      </trkpt>
      <trkpt lat="37.818580" lon="-122.352530">
        <ele>0.080</ele>
        <time>2018-12-29T10:38:37Z</time>
      </trkpt>
      <trkpt lat="37.818480" lon="-122.352840">
        <ele>0.013</ele>
        <time>2018-12-29T10:38:57Z</time>
      </trkpt>
      <trkpt lat="37.818390" lon="-122.353090">
        <ele>0.043</ele>
        <time>2018-12-29T10:39:17Z</time>
      </trkpt>
      <trkpt lat="37.818280" lon="-122.353390">
        <ele>0.007</ele>
        <time>2018-12-29T10:39:37Z</time>
      </trkpt>
      <trkpt lat="37.818130" lon="-122.353740">
        <ele>-0.008</ele>
        <time>2018-12-29T10:39:57Z</time>
      </trkpt>
      <trkpt lat="37.817990" lon="-122.354080">
        <ele>-0.054</ele>
        <time>2018-12-29T10:40:17Z</time>
      </trkpt>
      <trkpt lat="37.817800" lon="-122.354480">
        <ele>-0.012</ele>
        <time>2018-12-29T10:40:37Z</time>
      </trkpt>
      <trkpt lat="37.817590" lon="-122.354900">
        <ele>-0.017</ele>
        <time>2018-12-29T10:40:57Z</time>
      </trkpt>
      <trkpt lat="37.816270" lon="-122.357200">
        <ele>0.056</ele>
        <time>2018-12-29T10:41:17Z</time>
      </trkpt>
      <trkpt lat="37.815000" lon="-122.359400">
        <ele>2.780</ele>
        <time>2018-12-29T10:41:37Z</time>
      </trkpt>
      <trkpt lat="37.814760" lon="-122.359840">
        <ele>9.513</ele>
        <time>2018-12-29T10:41:57Z</time>
      </trkpt>
      <trkpt lat="37.814510" lon="-122.360240">
        <ele>10.957</ele>
        <time>2018-12-29T10:42:17Z</time>
      </trkpt>
      <trkpt lat="37.814440" lon="-122.360370">
        <ele>13.110</ele>
        <time>2018-12-29T10:42:37Z</time>
      </trkpt>
      <trkpt lat="37.814370" lon="-122.360500">
        <ele>17.284</ele>
        <time>2018-12-29T10:42:57Z</time>
      </trkpt>
      <trkpt lat="37.814240" lon="-122.360740">
        <ele>19.907</ele>
        <time>2018-12-29T10:43:17Z</time>
      </trkpt>
      <trkpt lat="37.814030" lon="-122.361090">
        <ele>20.617</ele>
        <time>2018-12-29T10:43:37Z</time>
      </trkpt>
      <trkpt lat="37.813870" lon="-122.361330">
        <ele>17.408</ele>
        <time>2018-12-29T10:43:57Z</time>
      </trkpt>
      <trkpt lat="37.813730" lon="-122.361530">
        <ele>14.991</ele>
        <time>2018-12-29T10:44:17Z</time>
      </trkpt>
      <trkpt lat="37.813550" lon="-122.361770">
        <ele>10.849</ele>
        <time>2018-12-29T10:44:37Z</time>
      </trkpt>
      <trkpt lat="37.813340" lon="-122.362030">
        <ele>10.914</ele>
        <time>2018-12-29T10:44:57Z</time>
      </trkpt>
      <trkpt lat="37.813160" lon="-122.362250">
        <ele>11.813</ele>
        <time>2018-12-29T10:45:17Z</time>
      </trkpt>
      <trkpt lat="37.812970" lon="-122.362450">
        <ele>11.857</ele>
        <time>2018-12-29T10:45:37Z</time>
      </trkpt>
      <trkpt lat="37.812750" lon="-122.362660">
        <ele>12.720</ele>
        <time>2018-12-29T10:45:57Z</time>
      </trkpt>
      <trkpt lat="37.811690" lon="-122.363530">
        <ele>44.534</ele>
        <time>2018-12-29T10:46:17Z</time>
      </trkpt>
      <trkpt lat="37.811490" lon="-122.363700">
        <ele>48.627</ele>
        <time>2018-12-29T10:46:37Z</time>
      </trkpt>
      <trkpt lat="37.811290" lon="-122.363870">
        <ele>49.752</ele>
        <time>2018-12-29T10:46:57Z</time>
      </trkpt>
      <trkpt lat="37.811020" lon="-122.364130">
        <ele>51.653</ele>
        <time>2018-12-29T10:47:17Z</time>
      </trkpt>
      <trkpt lat="37.810930" lon="-122.364220">
        <ele>52.208</ele>
        <time>2018-12-29T10:47:37Z</time>
      </trkpt>
      <trkpt lat="37.810840" lon="-122.364320">
        <ele>52.908</ele>
        <time>2018-12-29T10:47:57Z</time>
      </trkpt>
      <trkpt lat="37.810380" lon="-122.364790">
        <ele>57.518</ele>
        <time>2018-12-29T10:48:17Z</time>
      </trkpt>
      <trkpt lat="37.810270" lon="-122.364910">
        <ele>58.386</ele>
        <time>2018-12-29T10:48:37Z</time>
      </trkpt>
      <trkpt lat="37.809600" lon="-122.365650">
        <ele>101.721</ele>
        <time>2018-12-29T10:48:57Z</time>
      </trkpt>
      <trkpt lat="37.808930" lon="-122.366390">
        <ele>55.260</ele>
        <time>2018-12-29T10:49:17Z</time>
      </trkpt>
      <trkpt lat="37.808300" lon="-122.367030">
        <ele>41.674</ele>
        <time>2018-12-29T10:49:37Z</time>
      </trkpt>
      <trkpt lat="37.808070" lon="-122.367370">
        <ele>25.847</ele>
        <time>2018-12-29T10:49:57Z</time>
      </trkpt>
      <trkpt lat="37.807910" lon="-122.367530">
        <ele>7.741</ele>
        <time>2018-12-29T10:50:17Z</time>
      </trkpt>
      <trkpt lat="37.807740" lon="-122.367690">
        <ele>1.424</ele>
        <time>2018-12-29T10:50:37Z</time>
      </trkpt>
      <trkpt lat="37.807090" lon="-122.368410">
        <ele>0.873</ele>
        <time>2018-12-29T10:50:57Z</time>
      </trkpt>
      <trkpt lat="37.806670" lon="-122.368870">
        <ele>0.085</ele>
        <time>2018-12-29T10:51:17Z</time>
      </trkpt>
      <trkpt lat="37.806490" lon="-122.369060">
        <ele>0.013</ele>
        <time>2018-12-29T10:51:37Z</time>
      </trkpt>
      <trkpt lat="37.805470" lon="-122.370230">
        <ele>0.008</ele>
        <time>2018-12-29T10:51:57Z</time>
      </trkpt>
      <trkpt lat="37.804860" lon="-122.370920">
        <ele>0.090</ele>
        <time>2018-12-29T10:52:17Z</time>
      </trkpt>
      <trkpt lat="37.803910" lon="-122.371930">
        <ele>0.028</ele>
        <time>2018-12-29T10:52:37Z</time>
      </trkpt>
      <trkpt lat="37.802960" lon="-122.372950">
        <ele>0.093</ele>
        <time>2018-12-29T10:52:57Z</time>
      </trkpt>
      <trkpt lat="37.802790" lon="-122.373130">
        <ele>0.082</ele>
        <time>2018-12-29T10:53:17Z</time>
      </trkpt>
      <trkpt lat="37.802620" lon="-122.373320">
        <ele>0.036</ele>
        <time>2018-12-29T10:53:37Z</time>
      </trkpt>
      <trkpt lat="37.801800" lon="-122.374180">
        <ele>0.099</ele>
        <time>2018-12-29T10:53:57Z</time>
      </trkpt>
      <trkpt lat="37.800970" lon="-122.375040">
        <ele>0.053</ele>
        <time>2018-12-29T10:54:17Z</time>
      </trkpt>
      <trkpt lat="37.799580" lon="-122.376500">
        <ele>0.016</ele>
        <time>2018-12-29T10:54:37Z</time>
      </trkpt>
      <trkpt lat="37.798190" lon="-122.377960">
        <ele>0.048</ele>
        <time>2018-12-29T10:54:57Z</time>
      </trkpt>
      <trkpt lat="37.797750" lon="-122.378420">
        <ele>0.061</ele>
        <time>2018-12-29T10:55:17Z</time>
      </trkpt>
      <trkpt lat="37.797320" lon="-122.378880">
        <ele>0.017</ele>
        <time>2018-12-29T10:55:37Z</time>
      </trkpt>
      <trkpt lat="37.796460" lon="-122.379820">
        <ele>-0.008</ele>
        <time>2018-12-29T10:55:57Z</time>
      </trkpt>
      <trkpt lat="37.795560" lon="-122.380740">
        <ele>-0.087</ele>
        <time>2018-12-29T10:56:17Z</time>
      </trkpt>
      <trkpt lat="37.794700" lon="-122.381710">
        <ele>-0.015</ele>
        <time>2018-12-29T10:56:37Z</time>
      </trkpt>
      <trkpt lat="37.793880" lon="-122.382600">
        <ele>-0.080</ele>
        <time>2018-12-29T10:56:57Z</time>
      </trkpt>
      <trkpt lat="37.793450" lon="-122.383070">
        <ele>-0.089</ele>
        <time>2018-12-29T10:57:17Z</time>
      </trkpt>
      <trkpt lat="37.793130" lon="-122.383410">
        <ele>-0.163</ele>
        <time>2018-12-29T10:57:37Z</time>
      </trkpt>
      <trkpt lat="37.792800" lon="-122.383750">
        <ele>-0.156</ele>
        <time>2018-12-29T10:57:57Z</time>
      </trkpt>
      <trkpt lat="37.792550" lon="-122.384010">
        <ele>-0.270</ele>
        <time>2018-12-29T10:58:17Z</time>
      </trkpt>
      <trkpt lat="37.792310" lon="-122.384270">
        <ele>-0.283</ele>
        <time>2018-12-29T10:58:37Z</time>
      </trkpt>
      <trkpt lat="37.792020" lon="-122.384570">
        <ele>0.096</ele>
        <time>2018-12-29T10:58:57Z</time>
      </trkpt>
      <trkpt lat="37.791730" lon="-122.384870">
        <ele>0.031</ele>
        <time>2018-12-29T10:59:17Z</time>
      </trkpt>
      <trkpt lat="37.790840" lon="-122.385780">
        <ele>0.024</ele>
        <time>2018-12-29T10:59:37Z</time>
      </trkpt>
      <trkpt lat="37.790130" lon="-122.386530">
        <ele>0.008</ele>
        <time>2018-12-29T10:59:57Z</time>
      </trkpt>
      <trkpt lat="37.789930" lon="-122.386740">
        <ele>0.082</ele>
        <time>2018-12-29T11:00:17Z</time>
      </trkpt>
      <trkpt lat="37.788970" lon="-122.387760">
        <ele>3.160</ele>
        <time>2018-12-29T11:00:37Z</time>
      </trkpt>
      <trkpt lat="37.788810" lon="-122.387910">
        <ele>3.315</ele>
        <time>2018-12-29T11:00:57Z</time>
      </trkpt>
      <trkpt lat="37.788370" lon="-122.388320">
        <ele>3.454</ele>
        <time>2018-12-29T11:01:17Z</time>
      </trkpt>
      <trkpt lat="37.788000" lon="-122.388730">
        <ele>3.868</ele>
        <time>2018-12-29T11:01:37Z</time>
      </trkpt>
      <trkpt lat="37.787610" lon="-122.389130">
        <ele>6.281</ele>
        <time>2018-12-29T11:01:57Z</time>
      </trkpt>
      <trkpt lat="37.787490" lon="-122.389280">
        <ele>5.675</ele>
        <time>2018-12-29T11:02:17Z</time>
      </trkpt>
      <trkpt lat="37.787040" lon="-122.389790">
        <ele>5.148</ele>
        <time>2018-12-29T11:02:37Z</time>
      </trkpt>
      <trkpt lat="37.786780" lon="-122.390090">
        <ele>4.292</ele>
        <time>2018-12-29T11:02:57Z</time>
      </trkpt>
      <trkpt lat="37.786500" lon="-122.390430">
        <ele>5.973</ele>
        <time>2018-12-29T11:03:17Z</time>
      </trkpt>
      <trkpt lat="37.786230" lon="-122.390750">
        <ele>19.920</ele>
        <time>2018-12-29T11:03:37Z</time>
      </trkpt>
      <trkpt lat="37.786080" lon="-122.390960">
        <ele>22.808</ele>
        <time>2018-12-29T11:03:57Z</time>
      </trkpt>
      <trkpt lat="37.785940" lon="-122.391160">
        <ele>23.732</ele>
        <time>2018-12-29T11:04:17Z</time>
      </trkpt>
      <trkpt lat="37.785790" lon="-122.391370">
        <ele>25.050</ele>
        <time>2018-12-29T11:04:37Z</time>
      </trkpt>
      <trkpt lat="37.785580" lon="-122.391740">
        <ele>31.615</ele>
        <time>2018-12-29T11:04:57Z</time>
      </trkpt>
      <trkpt lat="37.785550" lon="-122.391800">
        <ele>32.314</ele>
        <time>2018-12-29T11:05:17Z</time>
      </trkpt>
      <trkpt lat="37.785520" lon="-122.391870">
        <ele>32.628</ele>
        <time>2018-12-29T11:05:37Z</time>
      </trkpt>
      <trkpt lat="37.785490" lon="-122.391930">
        <ele>32.661</ele>
        <time>2018-12-29T11:05:57Z</time>
      </trkpt>
      <trkpt lat="37.785460" lon="-122.391980">
        <ele>32.475</ele>
        <time>2018-12-29T11:06:17Z</time>
      </trkpt>
      <trkpt lat="37.785380" lon="-122.392110">
        <ele>31.678</ele>
        <time>2018-12-29T11:06:37Z</time>
      </trkpt>
      <trkpt lat="37.785290" lon="-122.392250">
        <ele>30.575</ele>
        <time>2018-12-29T11:06:57Z</time>
      </trkpt>
      <trkpt lat="37.784950" lon="-122.392850">
        <ele>28.728</ele>
        <time>2018-12-29T11:07:17Z</time>
      </trkpt>
      <trkpt lat="37.784580" lon="-122.393480">
        <ele>28.320</ele>
        <time>2018-12-29T11:07:37Z</time>
      </trkpt>
      <trkpt lat="37.784330" lon="-122.393870">
        <ele>26.408</ele>
        <time>2018-12-29T11:07:57Z</time>
      </trkpt>
      <trkpt lat="37.784160" lon="-122.394090">
        <ele>21.940</ele>
        <time>2018-12-29T11:08:17Z</time>
      </trkpt>
      <trkpt lat="37.784010" lon="-122.394300">
        <ele>18.438</ele>
        <time>2018-12-29T11:08:37Z</time>
      </trkpt>
      <trkpt lat="37.783910" lon="-122.394430">
        <ele>18.293</ele>
        <time>2018-12-29T11:08:57Z</time>
      </trkpt>
      <trkpt lat="37.783880" lon="-122.394460">
        <ele>18.272</ele>
        <time>2018-12-29T11:09:17Z</time>
      </trkpt>
      <trkpt lat="37.783820" lon="-122.394530">
        <ele>18.146</ele>
        <time>2018-12-29T11:09:37Z</time>
      </trkpt>
      <trkpt lat="37.783820" lon="-122.394540">
        <ele>18.229</ele>
        <time>2018-12-29T11:09:57Z</time>
      </trkpt>
      <trkpt lat="37.783810" lon="-122.394550">
        <ele>18.123</ele>
        <time>2018-12-29T11:10:17Z</time>
      </trkpt>
      <trkpt lat="37.783800" lon="-122.394560">
        <ele>18.186</ele>
        <time>2018-12-29T11:10:37Z</time>
      </trkpt>
      <trkpt lat="37.783190" lon="-122.395340">
        <ele>18.693</ele>
        <time>2018-12-29T11:10:57Z</time>
      </trkpt>
      <trkpt lat="37.783090" lon="-122.395470">
        <ele>17.965</ele>
        <time>2018-12-29T11:11:17Z</time>
      </trkpt>
      <trkpt lat="37.782490" lon="-122.396240">
        <ele>10.821</ele>
        <time>2018-12-29T11:11:37Z</time>
      </trkpt>
      <trkpt lat="37.782330" lon="-122.396450">
        <ele>8.908</ele>
        <time>2018-12-29T11:11:57Z</time>
      </trkpt>
      <trkpt lat="37.782180" lon="-122.396650">
        <ele>7.382</ele>
        <time>2018-12-29T11:12:17Z</time>
      </trkpt>
      <trkpt lat="37.782090" lon="-122.396760">
        <ele>6.710</ele>
        <time>2018-12-29T11:12:37Z</time>
      </trkpt>
      <trkpt lat="37.782070" lon="-122.396790">
        <ele>6.725</ele>
        <time>2018-12-29T11:12:57Z</time>
      </trkpt>
      <trkpt lat="37.781940" lon="-122.396960">
        <ele>6.754</ele>
        <time>2018-12-29T11:13:17Z</time>
      </trkpt>
      <trkpt lat="37.781720" lon="-122.397260">
        <ele>6.498</ele>
        <time>2018-12-29T11:13:37Z</time>
      </trkpt>
      <trkpt lat="37.781080" lon="-122.398110">
        <ele>5.541</ele>
        <time>2018-12-29T11:13:57Z</time>
      </trkpt>
      <trkpt lat="37.780430" lon="-122.398950">
        <ele>4.485</ele>
        <time>2018-12-29T11:14:17Z</time>
      </trkpt>
      <trkpt lat="37.778540" lon="-122.401440">
        <ele>3.298</ele>
        <time>2018-12-29T11:14:37Z</time>
      </trkpt>
      <trkpt lat="37.778480" lon="-122.401520">
        <ele>3.271</ele>
        <time>2018-12-29T11:14:57Z</time>
      </trkpt>
      <trkpt lat="37.778270" lon="-122.401790">
        <ele>2.741</ele>
        <time>2018-12-29T11:15:17Z</time>
      </trkpt>
      <trkpt lat="37.778060" lon="-122.402060">
        <ele>2.615</ele>
        <time>2018-12-29T11:15:37Z</time>
      </trkpt>
      <trkpt lat="37.777860" lon="-122.402340">
        <ele>2.608</ele>
        <time>2018-12-29T11:15:57Z</time>
      </trkpt>
      <trkpt lat="37.777660" lon="-122.402630">
        <ele>3.350</ele>
        <time>2018-12-29T11:16:17Z</time>
      </trkpt>
      <trkpt lat="37.777470" lon="-122.402910">
        <ele>3.068</ele>
        <time>2018-12-29T11:16:37Z</time>
      </trkpt>
      <trkpt lat="37.777270" lon="-122.403210">
        <ele>2.833</ele>
        <time>2018-12-29T11:16:57Z</time>
      </trkpt>
      <trkpt lat="37.777090" lon="-122.403510">
        <ele>3.892</ele>
        <time>2018-12-29T11:17:17Z</time>
      </trkpt>
      <trkpt lat="37.776910" lon="-122.403800">
        <ele>4.166</ele>
        <time>2018-12-29T11:17:37Z</time>
      </trkpt>
      <trkpt lat="37.776850" lon="-122.403890">
        <ele>4.229</ele>
        <time>2018-12-29T11:17:57Z</time>
      </trkpt>
      <trkpt lat="37.776640" lon="-122.404240">
        <ele>4.483</ele>
        <time>2018-12-29T11:18:17Z</time>
      </trkpt>
      <trkpt lat="37.776590" lon="-122.404330">
        <ele>4.586</ele>
        <time>2018-12-29T11:18:37Z</time>
      </trkpt>
      <trkpt lat="37.776420" lon="-122.404600">
        <ele>4.645</ele>
        <time>2018-12-29T11:18:57Z</time>
      </trkpt>
      <trkpt lat="37.776210" lon="-122.404960">
        <ele>4.947</ele>
        <time>2018-12-29T11:19:17Z</time>
      </trkpt>
      <trkpt lat="37.775950" lon="-122.405380">
        <ele>4.811</ele>
        <time>2018-12-29T11:19:37Z</time>
      </trkpt>
      <trkpt lat="37.775860" lon="-122.405490">
        <ele>4.908</ele>
        <time>2018-12-29T11:19:57Z</time>
      </trkpt>
      <trkpt lat="37.775730" lon="-122.405670">
        <ele>4.957</ele>
        <time>2018-12-29T11:20:17Z</time>
      </trkpt>
      <trkpt lat="37.775580" lon="-122.405850">
        <ele>5.185</ele>
        <time>2018-12-29T11:20:37Z</time>
      </trkpt>
      <trkpt lat="37.775420" lon="-122.406030">
        <ele>5.290</ele>
        <time>2018-12-29T11:20:57Z</time>
      </trkpt>
      <trkpt lat="37.775360" lon="-122.406070">
        <ele>5.269</ele>
        <time>2018-12-29T11:21:17Z</time>
      </trkpt>
      <trkpt lat="37.775310" lon="-122.406110">
        <ele>5.213</ele>
        <time>2018-12-29T11:21:37Z</time>
      </trkpt>
      <trkpt lat="37.775290" lon="-122.406120">
        <ele>5.236</ele>
        <time>2018-12-29T11:21:57Z</time>
      </trkpt>
      <trkpt lat="37.775250" lon="-122.406160">
        <ele>5.250</ele>
        <time>2018-12-29T11:22:17Z</time>
      </trkpt>
      <trkpt lat="37.775120" lon="-122.406250">
        <ele>5.353</ele>
        <time>2018-12-29T11:22:37Z</time>
      </trkpt>
      <trkpt lat="37.774950" lon="-122.406360">
        <ele>5.685</ele>
        <time>2018-12-29T11:22:57Z</time>
      </trkpt>
      <trkpt lat="37.774730" lon="-122.406490">
        <ele>6.089</ele>
        <time>2018-12-29T11:23:17Z</time>
      </trkpt>
      <trkpt lat="37.774490" lon="-122.406610">
        <ele>6.917</ele>
        <time>2018-12-29T11:23:37Z</time>
      </trkpt>
      <trkpt lat="37.774260" lon="-122.406700">
        <ele>8.108</ele>
        <time>2018-12-29T11:23:57Z</time>
      </trkpt>
      <trkpt lat="37.774030" lon="-122.406760">
        <ele>7.371</ele>
        <time>2018-12-29T11:24:17Z</time>
      </trkpt>
      <trkpt lat="37.773790" lon="-122.406810">
        <ele>6.969</ele>
        <time>2018-12-29T11:24:37Z</time>
      </trkpt>
      <trkpt lat="37.773620" lon="-122.406830">
        <ele>7.074</ele>
        <time>2018-12-29T11:24:57Z</time>
      </trkpt>
      <trkpt lat="37.773360" lon="-122.406840">
        <ele>6.913</ele>
        <time>2018-12-29T11:25:17Z</time>
      </trkpt>
      <trkpt lat="37.773120" lon="-122.406830">
        <ele>6.717</ele>
        <time>2018-12-29T11:25:37Z</time>
      </trkpt>
      <trkpt lat="37.772870" lon="-122.406810">
        <ele>6.510</ele>
        <time>2018-12-29T11:25:57Z</time>
      </trkpt>
      <trkpt lat="37.772690" lon="-122.406770">
        <ele>6.224</ele>
        <time>2018-12-29T11:26:17Z</time>
      </trkpt>
      <trkpt lat="37.772640" lon="-122.406770">
        <ele>6.237</ele>
        <time>2018-12-29T11:26:37Z</time>
      </trkpt>
      <trkpt lat="37.772440" lon="-122.406720">
        <ele>6.178</ele>
        <time>2018-12-29T11:26:57Z</time>
      </trkpt>
      <trkpt lat="37.772380" lon="-122.406710">
        <ele>6.133</ele>
        <time>2018-12-29T11:27:17Z</time>
      </trkpt>
      <trkpt lat="37.772280" lon="-122.406690">
        <ele>6.026</ele>
        <time>2018-12-29T11:27:37Z</time>
      </trkpt>
      <trkpt lat="37.772120" lon="-122.406640">
        <ele>5.708</ele>
        <time>2018-12-29T11:27:57Z</time>
      </trkpt>
      <trkpt lat="37.772050" lon="-122.406610">
        <ele>5.620</ele>
        <time>2018-12-29T11:28:17Z</time>
      </trkpt>
      <trkpt lat="37.771910" lon="-122.406570">
        <ele>5.648</ele>
        <time>2018-12-29T11:28:37Z</time>
      </trkpt>
      <trkpt lat="37.771730" lon="-122.406490">
        <ele>5.343</ele>
        <time>2018-12-29T11:28:57Z</time>
      </trkpt>
      <trkpt lat="37.771340" lon="-122.406290">
        <ele>4.612</ele>
        <time>2018-12-29T11:29:17Z</time>
      </trkpt>
      <trkpt lat="37.771150" lon="-122.406190">
        <ele>4.586</ele>
        <time>2018-12-29T11:29:37Z</time>
      </trkpt>
      <trkpt lat="37.770920" lon="-122.406070">
        <ele>4.459</ele>
        <time>2018-12-29T11:29:57Z</time>
      </trkpt>
      <trkpt lat="37.770760" lon="-122.406000">
        <ele>4.423</ele>
        <time>2018-12-29T11:30:17Z</time>
      </trkpt>
      <trkpt lat="37.770610" lon="-122.405930">
        <ele>4.546</ele>
        <time>2018-12-29T11:30:37Z</time>
      </trkpt>
      <trkpt lat="37.770607" lon="-122.405932">
        <ele>4.546</ele>
        <time>2018-12-29T11:30:57Z</time>
      </trkpt>
      <trkpt lat="37.770430" lon="-122.405920">
        <ele>4.688</ele>
        <time>2018-12-29T11:31:17Z</time>
      </trkpt>
      <trkpt lat="37.770160" lon="-122.405860">
        <ele>4.616</ele>
        <time>2018-12-29T11:31:37Z</time>
      </trkpt>
      <trkpt lat="37.770000" lon="-122.405850">
        <ele>4.608</ele>
        <time>2018-12-29T11:31:57Z</time>
      </trkpt>
      <trkpt lat="37.769870" lon="-122.405840">
        <ele>4.647</ele>
        <time>2018-12-29T11:32:17Z</time>
      </trkpt>
      <trkpt lat="37.769740" lon="-122.405850">
        <ele>4.795</ele>
        <time>2018-12-29T11:32:37Z</time>
      </trkpt>
      <trkpt lat="37.769640" lon="-122.405860">
        <ele>4.790</ele>
        <time>2018-12-29T11:32:57Z</time>
      </trkpt>
      <trkpt lat="37.769540" lon="-122.405890">
        <ele>4.859</ele>
        <time>2018-12-29T11:33:17Z</time>
      </trkpt>
      <trkpt lat="37.769470" lon="-122.405930">
        <ele>4.783</ele>
        <time>2018-12-29T11:33:37Z</time>
      </trkpt>
      <trkpt lat="37.769400" lon="-122.405970">
        <ele>4.776</ele>
        <time>2018-12-29T11:33:57Z</time>
      </trkpt>
      <trkpt lat="37.769320" lon="-122.406040">
        <ele>4.650</ele>
        <time>2018-12-29T11:34:17Z</time>
      </trkpt>
      <trkpt lat="37.769280" lon="-122.406080">
        <ele>4.763</ele>
        <time>2018-12-29T11:34:37Z</time>
      </trkpt>
      <trkpt lat="37.769240" lon="-122.406110">
        <ele>4.794</ele>
        <time>2018-12-29T11:34:57Z</time>
      </trkpt>
      <trkpt lat="37.769210" lon="-122.406160">
        <ele>4.857</ele>
        <time>2018-12-29T11:35:17Z</time>
      </trkpt>
      <trkpt lat="37.769140" lon="-122.406250">
        <ele>4.922</ele>
        <time>2018-12-29T11:35:37Z</time>
      </trkpt>
      <trkpt lat="37.769100" lon="-122.406320">
        <ele>4.908</ele>
        <time>2018-12-29T11:35:57Z</time>
      </trkpt>
      <trkpt lat="37.769050" lon="-122.406440">
        <ele>4.962</ele>
        <time>2018-12-29T11:36:17Z</time>
      </trkpt>
      <trkpt lat="37.769020" lon="-122.406520">
        <ele>5.050</ele>
        <time>2018-12-29T11:36:37Z</time>
      </trkpt>
      <trkpt lat="37.769000" lon="-122.406610">
        <ele>5.075</ele>
        <time>2018-12-29T11:36:57Z</time>
      </trkpt>
      <trkpt lat="37.768980" lon="-122.406710">
        <ele>5.074</ele>
        <time>2018-12-29T11:37:17Z</time>
      </trkpt>
      <trkpt lat="37.768960" lon="-122.406860">
        <ele>5.148</ele>
        <time>2018-12-29T11:37:37Z</time>
      </trkpt>
      <trkpt lat="37.768960" lon="-122.406910">
        <ele>5.141</ele>
        <time>2018-12-29T11:37:57Z</time>
      </trkpt>
      <trkpt lat="37.768960" lon="-122.407060">
        <ele>5.235</ele>
        <time>2018-12-29T11:38:17Z</time>
      </trkpt>
      <trkpt lat="37.768960" lon="-122.407090">
        <ele>5.288</ele>
        <time>2018-12-29T11:38:37Z</time>
      </trkpt>
      <trkpt lat="37.768960" lon="-122.407210">
        <ele>5.357</ele>
        <time>2018-12-29T11:38:57Z</time>
      </trkpt>
      <trkpt lat="37.768980" lon="-122.407680">
        <ele>5.800</ele>
        <time>2018-12-29T11:39:17Z</time>
      </trkpt>
      <trkpt lat="37.768980" lon="-122.407770">
        <ele>5.920</ele>
        <time>2018-12-29T11:39:37Z</time>
      </trkpt>
      <trkpt lat="37.768990" lon="-122.407820">
        <ele>5.908</ele>
        <time>2018-12-29T11:39:57Z</time>
      </trkpt>
      <trkpt lat="37.769000" lon="-122.407970">
        <ele>5.958</ele>
        <time>2018-12-29T11:40:17Z</time>
      </trkpt>
      <trkpt lat="37.769010" lon="-122.408040">
        <ele>5.916</ele>
        <time>2018-12-29T11:40:37Z</time>
      </trkpt>
      <trkpt lat="37.769020" lon="-122.408150">
        <ele>5.871</ele>
        <time>2018-12-29T11:40:57Z</time>
      </trkpt>
      <trkpt lat="37.769040" lon="-122.408420">
        <ele>5.570</ele>
        <time>2018-12-29T11:41:17Z</time>
      </trkpt>
      <trkpt lat="37.769120" lon="-122.408970">
        <ele>5.854</ele>
        <time>2018-12-29T11:41:37Z</time>
      </trkpt>
      <trkpt lat="37.769130" lon="-122.409040">
        <ele>5.987</ele>
        <time>2018-12-29T11:41:57Z</time>
      </trkpt>
      <trkpt lat="37.769290" lon="-122.409960">
        <ele>6.031</ele>
        <time>2018-12-29T11:42:17Z</time>
      </trkpt>
      <trkpt lat="37.769330" lon="-122.410190">
        <ele>5.974</ele>
        <time>2018-12-29T11:42:37Z</time>
      </trkpt>
      <trkpt lat="37.769360" lon="-122.410360">
        <ele>5.811</ele>
        <time>2018-12-29T11:42:57Z</time>
      </trkpt>
      <trkpt lat="37.769370" lon="-122.410470">
        <ele>5.821</ele>
        <time>2018-12-29T11:43:17Z</time>
      </trkpt>
      <trkpt lat="37.769380" lon="-122.410490">
        <ele>5.803</ele>
        <time>2018-12-29T11:43:37Z</time>
      </trkpt>
      <trkpt lat="37.769390" lon="-122.410510">
        <ele>5.808</ele>
        <time>2018-12-29T11:43:57Z</time>
      </trkpt>
      <trkpt lat="37.769410" lon="-122.410540">
        <ele>5.854</ele>
        <time>2018-12-29T11:44:17Z</time>
      </trkpt>
      <trkpt lat="37.769430" lon="-122.410580">
        <ele>5.892</ele>
        <time>2018-12-29T11:44:37Z</time>
      </trkpt>
      <trkpt lat="37.769520" lon="-122.411500">
        <ele>6.037</ele>
        <time>2018-12-29T11:44:57Z</time>
      </trkpt>
      <trkpt lat="37.769530" lon="-122.411540">
        <ele>6.166</ele>
        <time>2018-12-29T11:45:17Z</time>
      </trkpt>
      <trkpt lat="37.769540" lon="-122.411660">
        <ele>6.120</ele>
        <time>2018-12-29T11:45:37Z</time>
      </trkpt>
      <trkpt lat="37.769560" lon="-122.412110">
        <ele>6.243</ele>
        <time>2018-12-29T11:45:57Z</time>
      </trkpt>
      <trkpt lat="37.769570" lon="-122.412470">
        <ele>6.197</ele>
        <time>2018-12-29T11:46:17Z</time>
      </trkpt>
      <trkpt lat="37.769590" lon="-122.413190">
        <ele>5.720</ele>
        <time>2018-12-29T11:46:37Z</time>
      </trkpt>
      <trkpt lat="37.769610" lon="-122.413340">
        <ele>5.668</ele>
        <time>2018-12-29T11:46:57Z</time>
      </trkpt>
      <trkpt lat="37.769620" lon="-122.414690">
        <ele>5.942</ele>
        <time>2018-12-29T11:47:17Z</time>
      </trkpt>
      <trkpt lat="37.769630" lon="-122.414940">
        <ele>6.026</ele>
        <time>2018-12-29T11:47:37Z</time>
      </trkpt>
      <trkpt lat="37.769630" lon="-122.415190">
        <ele>6.108</ele>
        <time>2018-12-29T11:47:57Z</time>
      </trkpt>
      <trkpt lat="37.769640" lon="-122.415520">
        <ele>6.159</ele>
        <time>2018-12-29T11:48:17Z</time>
      </trkpt>
      <trkpt lat="37.769640" lon="-122.415550">
        <ele>6.197</ele>
        <time>2018-12-29T11:48:37Z</time>
      </trkpt>
      <trkpt lat="37.769640" lon="-122.415560">
        <ele>6.132</ele>
        <time>2018-12-29T11:48:57Z</time>
      </trkpt>
      <trkpt lat="37.769640" lon="-122.415570">
        <ele>6.131</ele>
        <time>2018-12-29T11:49:17Z</time>
      </trkpt>
      <trkpt lat="37.769640" lon="-122.415630">
        <ele>6.115</ele>
        <time>2018-12-29T11:49:37Z</time>
      </trkpt>
      <trkpt lat="37.769680" lon="-122.416310">
        <ele>6.648</ele>
        <time>2018-12-29T11:49:57Z</time>
      </trkpt>
      <trkpt lat="37.769684" lon="-122.416313">
        <ele>6.662</ele>
        <time>2018-12-29T11:50:17Z</time>
      </trkpt>
      <trkpt lat="37.769700" lon="-122.416560">
        <ele>6.795</ele>
        <time>2018-12-29T11:50:37Z</time>
      </trkpt>
      <trkpt lat="37.769790" lon="-122.417340">
        <ele>7.392</ele>
        <time>2018-12-29T11:50:57Z</time>
      </trkpt>
      <trkpt lat="37.769830" lon="-122.417610">
        <ele>7.673</ele>
        <time>2018-12-29T11:51:17Z</time>
      </trkpt>
      <trkpt lat="37.769840" lon="-122.417690">
        <ele>7.620</ele>
        <time>2018-12-29T11:51:37Z</time>
      </trkpt>
      <trkpt lat="37.769860" lon="-122.417810">
        <ele>7.708</ele>
        <time>2018-12-29T11:51:57Z</time>
      </trkpt>
      <trkpt lat="37.769970" lon="-122.418590">
        <ele>8.382</ele>
        <time>2018-12-29T11:52:17Z</time>
      </trkpt>
      <trkpt lat="37.769990" lon="-122.418710">
        <ele>8.450</ele>
        <time>2018-12-29T11:52:37Z</time>
      </trkpt>
      <trkpt lat="37.770020" lon="-122.418920">
        <ele>8.935</ele>
        <time>2018-12-29T11:52:57Z</time>
      </trkpt>
      <trkpt lat="37.770050" lon="-122.419150">
        <ele>9.364</ele>
        <time>2018-12-29T11:53:17Z</time>
      </trkpt>
      <trkpt lat="37.770070" lon="-122.419270">
        <ele>9.288</ele>
        <time>2018-12-29T11:53:37Z</time>
      </trkpt>
      <trkpt lat="37.770080" lon="-122.419460">
        <ele>9.261</ele>
        <time>2018-12-29T11:53:57Z</time>
      </trkpt>
      <trkpt lat="37.770100" lon="-122.419780">
        <ele>9.545</ele>
        <time>2018-12-29T11:54:17Z</time>
      </trkpt>
      <trkpt lat="37.770100" lon="-122.419860">
        <ele>9.558</ele>
        <time>2018-12-29T11:54:37Z</time>
      </trkpt>
      <trkpt lat="37.770100" lon="-122.419930">
        <ele>9.668</ele>
        <time>2018-12-29T11:54:57Z</time>
      </trkpt>
      <trkpt lat="37.770100" lon="-122.419940">
        <ele>9.642</ele>
        <time>2018-12-29T11:55:17Z</time>
      </trkpt>
      <trkpt lat="37.770110" lon="-122.420130">
        <ele>9.826</ele>
        <time>2018-12-29T11:55:37Z</time>
      </trkpt>
      <trkpt lat="37.770110" lon="-122.420200">
        <ele>9.908</ele>
        <time>2018-12-29T11:55:57Z</time>
      </trkpt>
      <trkpt lat="37.770120" lon="-122.420580">
        <ele>10.479</ele>
        <time>2018-12-29T11:56:17Z</time>
      </trkpt>
      <trkpt lat="37.770130" lon="-122.420670">
        <ele>10.687</ele>
        <time>2018-12-29T11:56:37Z</time>
      </trkpt>
      <trkpt lat="37.770130" lon="-122.420760">
        <ele>10.882</ele>
        <time>2018-12-29T11:56:57Z</time>
      </trkpt>
      <trkpt lat="37.770150" lon="-122.420920">
        <ele>11.381</ele>
        <time>2018-12-29T11:57:17Z</time>
      </trkpt>
      <trkpt lat="37.770180" lon="-122.421050">
        <ele>11.615</ele>
        <time>2018-12-29T11:57:37Z</time>
      </trkpt>
      <trkpt lat="37.770200" lon="-122.421170">
        <ele>11.818</ele>
        <time>2018-12-29T11:57:57Z</time>
      </trkpt>
      <trkpt lat="37.770230" lon="-122.421280">
        <ele>12.192</ele>
        <time>2018-12-29T11:58:17Z</time>
      </trkpt>
      <trkpt lat="37.770250" lon="-122.421350">
        <ele>12.365</ele>
        <time>2018-12-29T11:58:37Z</time>
      </trkpt>
      <trkpt lat="37.770290" lon="-122.421520">
        <ele>12.919</ele>
        <time>2018-12-29T11:58:57Z</time>
      </trkpt>
      <trkpt lat="37.770330" lon="-122.421620">
        <ele>13.109</ele>
        <time>2018-12-29T11:59:17Z</time>
      </trkpt>
      <trkpt lat="37.770330" lon="-122.421630">
        <ele>13.119</ele>
        <time>2018-12-29T11:59:37Z</time>
      </trkpt>
      <trkpt lat="37.770340" lon="-122.421640">
        <ele>13.208</ele>
        <time>2018-12-29T11:59:57Z</time>
      </trkpt>
      <trkpt lat="37.770370" lon="-122.421730">
        <ele>13.494</ele>
        <time>2018-12-29T12:00:17Z</time>
      </trkpt>
      <trkpt lat="37.770470" lon="-122.421950">
        <ele>13.922</ele>
        <time>2018-12-29T12:00:37Z</time>
      </trkpt>
      <trkpt lat="37.770580" lon="-122.422160">
        <ele>14.517</ele>
        <time>2018-12-29T12:00:57Z</time>
      </trkpt>
      <trkpt lat="37.770620" lon="-122.422220">
        <ele>14.676</ele>
        <time>2018-12-29T12:01:17Z</time>
      </trkpt>
      <trkpt lat="37.770720" lon="-122.422370">
        <ele>14.960</ele>
        <time>2018-12-29T12:01:37Z</time>
      </trkpt>
      <trkpt lat="37.770800" lon="-122.422470">
        <ele>15.193</ele>
        <time>2018-12-29T12:01:57Z</time>
      </trkpt>
      <trkpt lat="37.770810" lon="-122.422490">
        <ele>15.137</ele>
        <time>2018-12-29T12:02:17Z</time>
      </trkpt>
      <trkpt lat="37.770850" lon="-122.422540">
        <ele>15.140</ele>
        <time>2018-12-29T12:02:37Z</time>
      </trkpt>
      <trkpt lat="37.770960" lon="-122.422660">
        <ele>15.363</ele>
        <time>2018-12-29T12:02:57Z</time>
      </trkpt>
      <trkpt lat="37.771120" lon="-122.422800">
        <ele>16.144</ele>
        <time>2018-12-29T12:03:17Z</time>
      </trkpt>
      <trkpt lat="37.771220" lon="-122.422880">
        <ele>16.618</ele>
        <time>2018-12-29T12:03:37Z</time>
      </trkpt>
      <trkpt lat="37.771250" lon="-122.422910">
        <ele>16.808</ele>
        <time>2018-12-29T12:03:57Z</time>
      </trkpt>
      <trkpt lat="37.771790" lon="-122.423270">
        <ele>20.499</ele>
        <time>2018-12-29T12:04:17Z</time>
      </trkpt>
      <trkpt lat="37.771880" lon="-122.423340">
        <ele>20.427</ele>
        <time>2018-12-29T12:04:37Z</time>
      </trkpt>
      <trkpt lat="37.771880" lon="-122.423344">
        <ele>20.482</ele>
        <time>2018-12-29T12:04:57Z</time>
      </trkpt>
      <trkpt lat="37.771960" lon="-122.423230">
        <ele>19.711</ele>
        <time>2018-12-29T12:05:17Z</time>
      </trkpt>
      <trkpt lat="37.772050" lon="-122.423120">
        <ele>18.985</ele>
        <time>2018-12-29T12:05:37Z</time>
      </trkpt>
      <trkpt lat="37.772120" lon="-122.423020">
        <ele>18.358</ele>
        <time>2018-12-29T12:05:57Z</time>
      </trkpt>
      <trkpt lat="37.772270" lon="-122.422840">
        <ele>17.582</ele>
        <time>2018-12-29T12:06:17Z</time>
      </trkpt>
      <trkpt lat="37.772450" lon="-122.422630">
        <ele>17.285</ele>
        <time>2018-12-29T12:06:37Z</time>
      </trkpt>
      <trkpt lat="37.772580" lon="-122.422470">
        <ele>17.117</ele>
        <time>2018-12-29T12:06:57Z</time>
      </trkpt>
      <trkpt lat="37.772600" lon="-122.422440">
        <ele>17.187</ele>
        <time>2018-12-29T12:07:17Z</time>
      </trkpt>
      <trkpt lat="37.772750" lon="-122.422260">
        <ele>17.215</ele>
        <time>2018-12-29T12:07:37Z</time>
      </trkpt>
      <trkpt lat="37.772830" lon="-122.422160">
        <ele>17.108</ele>
        <time>2018-12-29T12:07:57Z</time>
      </trkpt>
      <trkpt lat="37.772920" lon="-122.422050">
        <ele>17.054</ele>
        <time>2018-12-29T12:08:17Z</time>
      </trkpt>
      <trkpt lat="37.772990" lon="-122.421950">
        <ele>16.932</ele>
        <time>2018-12-29T12:08:37Z</time>
      </trkpt>
      <trkpt lat="37.773050" lon="-122.421890">
        <ele>16.987</ele>
        <time>2018-12-29T12:08:57Z</time>
      </trkpt>
      <trkpt lat="37.773110" lon="-122.421810">
        <ele>16.856</ele>
        <time>2018-12-29T12:09:17Z</time>
      </trkpt>
      <trkpt lat="37.773140" lon="-122.421770">
        <ele>16.850</ele>
        <time>2018-12-29T12:09:37Z</time>
      </trkpt>
      <trkpt lat="37.773230" lon="-122.421660">
        <ele>16.713</ele>
        <time>2018-12-29T12:09:57Z</time>
      </trkpt>
      <trkpt lat="37.773320" lon="-122.421550">
        <ele>16.687</ele>
        <time>2018-12-29T12:10:17Z</time>
      </trkpt>
      <trkpt lat="37.773330" lon="-122.421510">
        <ele>16.630</ele>
        <time>2018-12-29T12:10:37Z</time>
      </trkpt>
      <trkpt lat="37.773340" lon="-122.421470">
        <ele>16.631</ele>
        <time>2018-12-29T12:10:57Z</time>
      </trkpt>
      <trkpt lat="37.773360" lon="-122.421450">
        <ele>16.661</ele>
        <time>2018-12-29T12:11:17Z</time>
      </trkpt>
      <trkpt lat="37.773370" lon="-122.421420">
        <ele>16.607</ele>
        <time>2018-12-29T12:11:37Z</time>
      </trkpt>
      <trkpt lat="37.773530" lon="-122.421220">
        <ele>16.608</ele>
        <time>2018-12-29T12:11:57Z</time>
      </trkpt>
      <trkpt lat="37.773900" lon="-122.420760">
        <ele>16.556</ele>
        <time>2018-12-29T12:12:17Z</time>
      </trkpt>
      <trkpt lat="37.774010" lon="-122.420610">
        <ele>16.494</ele>
        <time>2018-12-29T12:12:37Z</time>
      </trkpt>
      <trkpt lat="37.774110" lon="-122.420490">
        <ele>16.489</ele>
        <time>2018-12-29T12:12:57Z</time>
      </trkpt>
      <trkpt lat="37.774340" lon="-122.420210">
        <ele>16.368</ele>
        <time>2018-12-29T12:13:17Z</time>
      </trkpt>
      <trkpt lat="37.774390" lon="-122.420210">
        <ele>16.352</ele>
        <time>2018-12-29T12:13:37Z</time>
      </trkpt>
      <trkpt lat="37.774430" lon="-122.420210">
        <ele>16.355</ele>
        <time>2018-12-29T12:13:57Z</time>
      </trkpt>
      <trkpt lat="37.774620" lon="-122.419970">
        <ele>16.329</ele>
        <time>2018-12-29T12:14:17Z</time>
      </trkpt>
      <trkpt lat="37.774810" lon="-122.419730">
        <ele>16.622</ele>
        <time>2018-12-29T12:14:37Z</time>
      </trkpt>
      <trkpt lat="37.774880" lon="-122.419640">
        <ele>16.745</ele>
        <time>2018-12-29T12:14:57Z</time>
      </trkpt>
      <trkpt lat="37.774960" lon="-122.419540">
        <ele>16.747</ele>
        <time>2018-12-29T12:15:17Z</time>
      </trkpt>
      <trkpt lat="37.774961" lon="-122.419539">
        <ele>16.711</ele>
        <time>2018-12-29T12:15:37Z</time>
      </trkpt>
      <trkpt lat="37.774920" lon="-122.419284">
        <ele>16.424</ele>
        <time>2018-12-27T13:34:20Z</time>
      </trkpt>
      <trkpt lat="37.774660" lon="-122.419200">
        <ele>16.004</ele>
        <time>2018-12-27T13:34:40Z</time>
      </trkpt>
      <trkpt lat="37.773620" lon="-122.418880">
        <ele>13.214</ele>
        <time>2018-12-27T13:35:00Z</time>
      </trkpt>
      <trkpt lat="37.773070" lon="-122.418720">
        <ele>12.108</ele>
        <time>2018-12-27T13:35:20Z</time>
      </trkpt>
      <trkpt lat="37.772810" lon="-122.418670">
        <ele>11.735</ele>
        <time>2018-12-27T13:35:40Z</time>
      </trkpt>
      <trkpt lat="37.772450" lon="-122.418560">
        <ele>11.123</ele>
        <time>2018-12-27T13:36:00Z</time>
      </trkpt>
      <trkpt lat="37.772360" lon="-122.418530">
        <ele>10.928</ele>
        <time>2018-12-27T13:36:20Z</time>
      </trkpt>
      <trkpt lat="37.772270" lon="-122.418490">
        <ele>10.787</ele>
        <time>2018-12-27T13:36:40Z</time>
      </trkpt>
      <trkpt lat="37.772190" lon="-122.418450">
        <ele>10.681</ele>
        <time>2018-12-27T13:37:00Z</time>
      </trkpt>
      <trkpt lat="37.772120" lon="-122.418430">
        <ele>10.517</ele>
        <time>2018-12-27T13:37:20Z</time>
      </trkpt>
      <trkpt lat="37.771220" lon="-122.418140">
        <ele>9.284</ele>
        <time>2018-12-27T13:37:40Z</time>
      </trkpt>
      <trkpt lat="37.771040" lon="-122.418080">
        <ele>9.078</ele>
        <time>2018-12-27T13:38:00Z</time>
      </trkpt>
      <trkpt lat="37.770880" lon="-122.418040">
        <ele>8.875</ele>
        <time>2018-12-27T13:38:20Z</time>
      </trkpt>
      <trkpt lat="37.770750" lon="-122.418000">
        <ele>8.628</ele>
        <time>2018-12-27T13:38:40Z</time>
      </trkpt>
      <trkpt lat="37.770710" lon="-122.417980">
        <ele>8.620</ele>
        <time>2018-12-27T13:39:00Z</time>
      </trkpt>
      <trkpt lat="37.770660" lon="-122.417940">
        <ele>8.508</ele>
        <time>2018-12-27T13:39:20Z</time>
      </trkpt>
      <trkpt lat="37.770560" lon="-122.417860">
        <ele>8.390</ele>
        <time>2018-12-27T13:39:40Z</time>
      </trkpt>
      <trkpt lat="37.770500" lon="-122.417810">
        <ele>8.338</ele>
        <time>2018-12-27T13:40:00Z</time>
      </trkpt>
      <trkpt lat="37.770440" lon="-122.417760">
        <ele>8.223</ele>
        <time>2018-12-27T13:40:20Z</time>
      </trkpt>
      <trkpt lat="37.770400" lon="-122.417740">
        <ele>8.232</ele>
        <time>2018-12-27T13:40:40Z</time>
      </trkpt>
      <trkpt lat="37.770390" lon="-122.417740">
        <ele>8.146</ele>
        <time>2018-12-27T13:41:00Z</time>
      </trkpt>
      <trkpt lat="37.770370" lon="-122.417740">
        <ele>8.172</ele>
        <time>2018-12-27T13:41:20Z</time>
      </trkpt>
      <trkpt lat="37.770350" lon="-122.417740">
        <ele>8.179</ele>
        <time>2018-12-27T13:41:40Z</time>
      </trkpt>
      <trkpt lat="37.770330" lon="-122.417740">
        <ele>8.123</ele>
        <time>2018-12-27T13:42:00Z</time>
      </trkpt>
      <trkpt lat="37.770310" lon="-122.417740">
        <ele>8.136</ele>
        <time>2018-12-27T13:42:20Z</time>
      </trkpt>
      <trkpt lat="37.770280" lon="-122.417750">
        <ele>8.017</ele>
        <time>2018-12-27T13:42:40Z</time>
      </trkpt>
      <trkpt lat="37.770030" lon="-122.417780">
        <ele>7.818</ele>
        <time>2018-12-27T13:43:00Z</time>
      </trkpt>
      <trkpt lat="37.770000" lon="-122.417780">
        <ele>7.808</ele>
        <time>2018-12-27T13:43:20Z</time>
      </trkpt>
      <trkpt lat="37.769990" lon="-122.417780">
        <ele>7.826</ele>
        <time>2018-12-27T13:43:40Z</time>
      </trkpt>
      <trkpt lat="37.769980" lon="-122.417780">
        <ele>7.764</ele>
        <time>2018-12-27T13:44:00Z</time>
      </trkpt>
      <trkpt lat="37.769900" lon="-122.417800">
        <ele>7.749</ele>
        <time>2018-12-27T13:44:20Z</time>
      </trkpt>
      <trkpt lat="37.769860" lon="-122.417810">
        <ele>7.718</ele>
        <time>2018-12-27T13:44:40Z</time>
      </trkpt>
      <trkpt lat="37.769850" lon="-122.417810">
        <ele>7.722</ele>
        <time>2018-12-27T13:45:00Z</time>
      </trkpt>
      <trkpt lat="37.769750" lon="-122.417820">
        <ele>7.558</ele>
        <time>2018-12-27T13:45:20Z</time>
      </trkpt>
      <trkpt lat="37.769740" lon="-122.417820">
        <ele>7.515</ele>
        <time>2018-12-27T13:45:40Z</time>
      </trkpt>
      <trkpt lat="37.769710" lon="-122.417830">
        <ele>7.559</ele>
        <time>2018-12-27T13:46:00Z</time>
      </trkpt>
      <trkpt lat="37.769650" lon="-122.417830">
        <ele>7.449</ele>
        <time>2018-12-27T13:46:20Z</time>
      </trkpt>
      <trkpt lat="37.769640" lon="-122.417840">
        <ele>7.402</ele>
        <time>2018-12-27T13:46:40Z</time>
      </trkpt>
      <trkpt lat="37.769610" lon="-122.417840">
        <ele>7.322</ele>
        <time>2018-12-27T13:47:00Z</time>
      </trkpt>
      <trkpt lat="37.769360" lon="-122.417870">
        <ele>6.808</ele>
        <time>2018-12-27T13:47:20Z</time>
      </trkpt>
      <trkpt lat="37.769240" lon="-122.417880">
        <ele>6.677</ele>
        <time>2018-12-27T13:47:40Z</time>
      </trkpt>
      <trkpt lat="37.769235" lon="-122.417882">
        <ele>6.625</ele>
        <time>2018-12-27T13:48:00Z</time>
      </trkpt>
      <trkpt lat="37.769160" lon="-122.417950">
        <ele>6.570</ele>
        <time>2018-12-27T13:48:20Z</time>
      </trkpt>
      <trkpt lat="37.769080" lon="-122.418020">
        <ele>6.549</ele>
        <time>2018-12-27T13:48:40Z</time>
      </trkpt>
      <trkpt lat="37.769030" lon="-122.418070">
        <ele>6.463</ele>
        <time>2018-12-27T13:49:00Z</time>
      </trkpt>
      <trkpt lat="37.768980" lon="-122.418140">
        <ele>6.479</ele>
        <time>2018-12-27T13:49:20Z</time>
      </trkpt>
      <trkpt lat="37.768950" lon="-122.418180">
        <ele>6.416</ele>
        <time>2018-12-27T13:49:40Z</time>
      </trkpt>
      <trkpt lat="37.768940" lon="-122.418210">
        <ele>6.430</ele>
        <time>2018-12-27T13:50:00Z</time>
      </trkpt>
      <trkpt lat="37.768920" lon="-122.418240">
        <ele>6.557</ele>
        <time>2018-12-27T13:50:20Z</time>
      </trkpt>
      <trkpt lat="37.768910" lon="-122.418280">
        <ele>6.600</ele>
        <time>2018-12-27T13:50:40Z</time>
      </trkpt>
      <trkpt lat="37.768900" lon="-122.418320">
        <ele>6.620</ele>
        <time>2018-12-27T13:51:00Z</time>
      </trkpt>
      <trkpt lat="37.768900" lon="-122.418350">
        <ele>6.708</ele>
        <time>2018-12-27T13:51:20Z</time>
      </trkpt>
      <trkpt lat="37.768890" lon="-122.418370">
        <ele>6.778</ele>
        <time>2018-12-27T13:51:40Z</time>
      </trkpt>
      <trkpt lat="37.768890" lon="-122.418410">
        <ele>6.826</ele>
        <time>2018-12-27T13:52:00Z</time>
      </trkpt>
      <trkpt lat="37.768880" lon="-122.418440">
        <ele>6.881</ele>
        <time>2018-12-27T13:52:20Z</time>
      </trkpt>
      <trkpt lat="37.768880" lon="-122.418470">
        <ele>6.950</ele>
        <time>2018-12-27T13:52:40Z</time>
      </trkpt>
      <trkpt lat="37.768890" lon="-122.418490">
        <ele>7.074</ele>
        <time>2018-12-27T13:53:00Z</time>
      </trkpt>
      <trkpt lat="37.768890" lon="-122.418530">
        <ele>7.160</ele>
        <time>2018-12-27T13:53:20Z</time>
      </trkpt>
      <trkpt lat="37.768900" lon="-122.418580">
        <ele>7.337</ele>
        <time>2018-12-27T13:53:40Z</time>
      </trkpt>
      <trkpt lat="37.768900" lon="-122.418610">
        <ele>7.481</ele>
        <time>2018-12-27T13:54:00Z</time>
      </trkpt>
      <trkpt lat="37.768910" lon="-122.418650">
        <ele>7.686</ele>
        <time>2018-12-27T13:54:20Z</time>
      </trkpt>
      <trkpt lat="37.768920" lon="-122.418690">
        <ele>7.860</ele>
        <time>2018-12-27T13:54:40Z</time>
      </trkpt>
      <trkpt lat="37.768930" lon="-122.418720">
        <ele>8.026</ele>
        <time>2018-12-27T13:55:00Z</time>
      </trkpt>
      <trkpt lat="37.768960" lon="-122.418760">
        <ele>8.408</ele>
        <time>2018-12-27T13:55:20Z</time>
      </trkpt>
      <trkpt lat="37.768980" lon="-122.418800">
        <ele>8.421</ele>
        <time>2018-12-27T13:55:40Z</time>
      </trkpt>
      <trkpt lat="37.769000" lon="-122.418840">
        <ele>8.469</ele>
        <time>2018-12-27T13:56:00Z</time>
      </trkpt>
      <trkpt lat="37.769030" lon="-122.418870">
        <ele>8.564</ele>
        <time>2018-12-27T13:56:20Z</time>
      </trkpt>
      <trkpt lat="37.769050" lon="-122.418890">
        <ele>8.523</ele>
        <time>2018-12-27T13:56:40Z</time>
      </trkpt>
      <trkpt lat="37.769080" lon="-122.418920">
        <ele>8.477</ele>
        <time>2018-12-27T13:57:00Z</time>
      </trkpt>
      <trkpt lat="37.769120" lon="-122.418950">
        <ele>8.323</ele>
        <time>2018-12-27T13:57:20Z</time>
      </trkpt>
      <trkpt lat="37.769150" lon="-122.418970">
        <ele>8.320</ele>
        <time>2018-12-27T13:57:40Z</time>
      </trkpt>
      <trkpt lat="37.769170" lon="-122.418980">
        <ele>8.394</ele>
        <time>2018-12-27T13:58:00Z</time>
      </trkpt>
      <trkpt lat="37.769190" lon="-122.419000">
        <ele>8.326</ele>
        <time>2018-12-27T13:58:20Z</time>
      </trkpt>
      <trkpt lat="37.769220" lon="-122.419000">
        <ele>8.447</ele>
        <time>2018-12-27T13:58:40Z</time>
      </trkpt>
      <trkpt lat="37.769240" lon="-122.419010">
        <ele>8.411</ele>
        <time>2018-12-27T13:59:00Z</time>
      </trkpt>
      <trkpt lat="37.769280" lon="-122.419010">
        <ele>8.508</ele>
        <time>2018-12-27T13:59:20Z</time>
      </trkpt>
      <trkpt lat="37.769340" lon="-122.419010">
        <ele>8.575</ele>
        <time>2018-12-27T13:59:40Z</time>
      </trkpt>
      <trkpt lat="37.769370" lon="-122.419010">
        <ele>8.683</ele>
        <time>2018-12-27T14:00:00Z</time>
      </trkpt>
      <trkpt lat="37.769420" lon="-122.419000">
        <ele>8.658</ele>
        <time>2018-12-27T14:00:20Z</time>
      </trkpt>
      <trkpt lat="37.769440" lon="-122.418990">
        <ele>8.727</ele>
        <time>2018-12-27T14:00:40Z</time>
      </trkpt>
      <trkpt lat="37.769470" lon="-122.418980">
        <ele>8.781</ele>
        <time>2018-12-27T14:01:00Z</time>
      </trkpt>
      <trkpt lat="37.769490" lon="-122.418960">
        <ele>8.677</ele>
        <time>2018-12-27T14:01:20Z</time>
      </trkpt>
      <trkpt lat="37.769520" lon="-122.418950">
        <ele>8.764</ele>
        <time>2018-12-27T14:01:40Z</time>
      </trkpt>
      <trkpt lat="37.769560" lon="-122.418910">
        <ele>8.668</ele>
        <time>2018-12-27T14:02:00Z</time>
      </trkpt>
      <trkpt lat="37.769600" lon="-122.418870">
        <ele>8.528</ele>
        <time>2018-12-27T14:02:20Z</time>
      </trkpt>
      <trkpt lat="37.769630" lon="-122.418830">
        <ele>8.489</ele>
        <time>2018-12-27T14:02:40Z</time>
      </trkpt>
      <trkpt lat="37.769650" lon="-122.418800">
        <ele>8.317</ele>
        <time>2018-12-27T14:03:00Z</time>
      </trkpt>
      <trkpt lat="37.769670" lon="-122.418750">
        <ele>8.208</ele>
        <time>2018-12-27T14:03:20Z</time>
      </trkpt>
      <trkpt lat="37.769690" lon="-122.418720">
        <ele>8.215</ele>
        <time>2018-12-27T14:03:40Z</time>
      </trkpt>
      <trkpt lat="37.769700" lon="-122.418670">
        <ele>8.293</ele>
        <time>2018-12-27T14:04:00Z</time>
      </trkpt>
      <trkpt lat="37.769720" lon="-122.418620">
        <ele>8.218</ele>
        <time>2018-12-27T14:04:20Z</time>
      </trkpt>
      <trkpt lat="37.769730" lon="-122.418580">
        <ele>8.247</ele>
        <time>2018-12-27T14:04:40Z</time>
      </trkpt>
      <trkpt lat="37.769730" lon="-122.418530">
        <ele>8.251</ele>
        <time>2018-12-27T14:05:00Z</time>
      </trkpt>
      <trkpt lat="37.769740" lon="-122.418480">
        <ele>8.227</ele>
        <time>2018-12-27T14:05:20Z</time>
      </trkpt>
      <trkpt lat="37.769740" lon="-122.418430">
        <ele>8.114</ele>
        <time>2018-12-27T14:05:40Z</time>
      </trkpt>
      <trkpt lat="37.769730" lon="-122.418360">
        <ele>8.058</ele>
        <time>2018-12-27T14:06:00Z</time>
      </trkpt>
      <trkpt lat="37.769720" lon="-122.418290">
        <ele>7.924</ele>
        <time>2018-12-27T14:06:20Z</time>
      </trkpt>
      <trkpt lat="37.769700" lon="-122.418160">
        <ele>7.704</ele>
        <time>2018-12-27T14:06:40Z</time>
      </trkpt>
      <trkpt lat="37.769670" lon="-122.417940">
        <ele>7.514</ele>
        <time>2018-12-27T14:07:00Z</time>
      </trkpt>
      <trkpt lat="37.769630" lon="-122.417720">
        <ele>7.308</ele>
        <time>2018-12-27T14:07:20Z</time>
      </trkpt>
      <trkpt lat="37.769580" lon="-122.417270">
        <ele>7.165</ele>
        <time>2018-12-27T14:07:40Z</time>
      </trkpt>
      <trkpt lat="37.769570" lon="-122.417170">
        <ele>7.053</ele>
        <time>2018-12-27T14:08:00Z</time>
      </trkpt>
      <trkpt lat="37.769570" lon="-122.417070">
        <ele>6.968</ele>
        <time>2018-12-27T14:08:20Z</time>
      </trkpt>
      <trkpt lat="37.769600" lon="-122.416790">
        <ele>6.897</ele>
        <time>2018-12-27T14:08:40Z</time>
      </trkpt>
      <trkpt lat="37.769550" lon="-122.415960">
        <ele>6.351</ele>
        <time>2018-12-27T14:09:00Z</time>
      </trkpt>
      <trkpt lat="37.769520" lon="-122.414990">
        <ele>5.947</ele>
        <time>2018-12-27T14:09:20Z</time>
      </trkpt>
      <trkpt lat="37.769490" lon="-122.413740">
        <ele>5.684</ele>
        <time>2018-12-27T14:09:40Z</time>
      </trkpt>
      <trkpt lat="37.769440" lon="-122.412500">
        <ele>6.468</ele>
        <time>2018-12-27T14:10:00Z</time>
      </trkpt>
      <trkpt lat="37.769430" lon="-122.412040">
        <ele>6.442</ele>
        <time>2018-12-27T14:10:20Z</time>
      </trkpt>
      <trkpt lat="37.769420" lon="-122.411800">
        <ele>6.322</ele>
        <time>2018-12-27T14:10:40Z</time>
      </trkpt>
      <trkpt lat="37.769400" lon="-122.411570">
        <ele>6.214</ele>
        <time>2018-12-27T14:11:00Z</time>
      </trkpt>
      <trkpt lat="37.769380" lon="-122.411320">
        <ele>6.008</ele>
        <time>2018-12-27T14:11:20Z</time>
      </trkpt>
      <trkpt lat="37.769350" lon="-122.411080">
        <ele>5.837</ele>
        <time>2018-12-27T14:11:40Z</time>
      </trkpt>
      <trkpt lat="37.769300" lon="-122.410710">
        <ele>5.965</ele>
        <time>2018-12-27T14:12:00Z</time>
      </trkpt>
      <trkpt lat="37.769190" lon="-122.410020">
        <ele>6.130</ele>
        <time>2018-12-27T14:12:20Z</time>
      </trkpt>
      <trkpt lat="37.769070" lon="-122.409350">
        <ele>6.229</ele>
        <time>2018-12-27T14:12:40Z</time>
      </trkpt>
      <trkpt lat="37.769074" lon="-122.409348">
        <ele>6.293</ele>
        <time>2018-12-27T14:13:00Z</time>
      </trkpt>
      <trkpt lat="37.769040" lon="-122.409050">
        <ele>5.929</ele>
        <time>2018-12-27T14:13:20Z</time>
      </trkpt>
      <trkpt lat="37.769000" lon="-122.408790">
        <ele>5.936</ele>
        <time>2018-12-27T14:13:40Z</time>
      </trkpt>
      <trkpt lat="37.768950" lon="-122.408400">
        <ele>5.960</ele>
        <time>2018-12-27T14:14:00Z</time>
      </trkpt>
      <trkpt lat="37.768920" lon="-122.408120">
        <ele>6.375</ele>
        <time>2018-12-27T14:14:20Z</time>
      </trkpt>
      <trkpt lat="37.768910" lon="-122.408030">
        <ele>6.328</ele>
        <time>2018-12-27T14:14:40Z</time>
      </trkpt>
      <trkpt lat="37.768900" lon="-122.407940">
        <ele>6.320</ele>
        <time>2018-12-27T14:15:00Z</time>
      </trkpt>
      <trkpt lat="37.768900" lon="-122.407830">
        <ele>6.308</ele>
        <time>2018-12-27T14:15:20Z</time>
      </trkpt>
      <trkpt lat="37.768890" lon="-122.407750">
        <ele>6.320</ele>
        <time>2018-12-27T14:15:40Z</time>
      </trkpt>
      <trkpt lat="37.768870" lon="-122.407390">
        <ele>5.828</ele>
        <time>2018-12-27T14:16:00Z</time>
      </trkpt>
      <trkpt lat="37.768860" lon="-122.407130">
        <ele>5.883</ele>
        <time>2018-12-27T14:16:20Z</time>
      </trkpt>
      <trkpt lat="37.768860" lon="-122.406920">
        <ele>5.722</ele>
        <time>2018-12-27T14:16:40Z</time>
      </trkpt>
      <trkpt lat="37.768860" lon="-122.406830">
        <ele>5.646</ele>
        <time>2018-12-27T14:17:00Z</time>
      </trkpt>
      <trkpt lat="37.768860" lon="-122.406680">
        <ele>5.642</ele>
        <time>2018-12-27T14:17:20Z</time>
      </trkpt>
      <trkpt lat="37.768870" lon="-122.406550">
        <ele>5.619</ele>
        <time>2018-12-27T14:17:40Z</time>
      </trkpt>
      <trkpt lat="37.768890" lon="-122.406340">
        <ele>5.693</ele>
        <time>2018-12-27T14:18:00Z</time>
      </trkpt>
      <trkpt lat="37.768920" lon="-122.406190">
        <ele>5.452</ele>
        <time>2018-12-27T14:18:20Z</time>
      </trkpt>
      <trkpt lat="37.768960" lon="-122.406040">
        <ele>5.253</ele>
        <time>2018-12-27T14:18:40Z</time>
      </trkpt>
      <trkpt lat="37.769010" lon="-122.405920">
        <ele>5.108</ele>
        <time>2018-12-27T14:19:00Z</time>
      </trkpt>
      <trkpt lat="37.769080" lon="-122.405800">
        <ele>5.008</ele>
        <time>2018-12-27T14:19:20Z</time>
      </trkpt>
      <trkpt lat="37.769210" lon="-122.405650">
        <ele>4.788</ele>
        <time>2018-12-27T14:19:40Z</time>
      </trkpt>
      <trkpt lat="37.769280" lon="-122.405590">
        <ele>4.636</ele>
        <time>2018-12-27T14:20:00Z</time>
      </trkpt>
      <trkpt lat="37.769360" lon="-122.405530">
        <ele>4.681</ele>
        <time>2018-12-27T14:20:20Z</time>
      </trkpt>
      <trkpt lat="37.769450" lon="-122.405490">
        <ele>4.640</ele>
        <time>2018-12-27T14:20:40Z</time>
      </trkpt>
      <trkpt lat="37.769530" lon="-122.405470">
        <ele>4.634</ele>
        <time>2018-12-27T14:21:00Z</time>
      </trkpt>
      <trkpt lat="37.769680" lon="-122.405430">
        <ele>4.550</ele>
        <time>2018-12-27T14:21:20Z</time>
      </trkpt>
      <trkpt lat="37.769810" lon="-122.405420">
        <ele>4.417</ele>
        <time>2018-12-27T14:21:40Z</time>
      </trkpt>
      <trkpt lat="37.769950" lon="-122.405420">
        <ele>4.331</ele>
        <time>2018-12-27T14:22:00Z</time>
      </trkpt>
      <trkpt lat="37.770110" lon="-122.405430">
        <ele>4.229</ele>
        <time>2018-12-27T14:22:20Z</time>
      </trkpt>
      <trkpt lat="37.770240" lon="-122.405460">
        <ele>4.200</ele>
        <time>2018-12-27T14:22:40Z</time>
      </trkpt>
      <trkpt lat="37.770380" lon="-122.405520">
        <ele>4.320</ele>
        <time>2018-12-27T14:23:00Z</time>
      </trkpt>
      <trkpt lat="37.770530" lon="-122.405590">
        <ele>4.308</ele>
        <time>2018-12-27T14:23:20Z</time>
      </trkpt>
      <trkpt lat="37.770660" lon="-122.405650">
        <ele>4.265</ele>
        <time>2018-12-27T14:23:40Z</time>
      </trkpt>
      <trkpt lat="37.770800" lon="-122.405710">
        <ele>4.293</ele>
        <time>2018-12-27T14:24:00Z</time>
      </trkpt>
      <trkpt lat="37.770950" lon="-122.405730">
        <ele>4.358</ele>
        <time>2018-12-27T14:24:20Z</time>
      </trkpt>
      <trkpt lat="37.770947" lon="-122.405730">
        <ele>4.267</ele>
        <time>2018-12-27T14:24:40Z</time>
      </trkpt>
      <trkpt lat="37.770970" lon="-122.405750">
        <ele>4.331</ele>
        <time>2018-12-27T14:25:00Z</time>
      </trkpt>
      <trkpt lat="37.771000" lon="-122.405760">
        <ele>4.257</ele>
        <time>2018-12-27T14:25:20Z</time>
      </trkpt>
      <trkpt lat="37.771050" lon="-122.405800">
        <ele>4.214</ele>
        <time>2018-12-27T14:25:40Z</time>
      </trkpt>
      <trkpt lat="37.771110" lon="-122.405840">
        <ele>4.298</ele>
        <time>2018-12-27T14:26:00Z</time>
      </trkpt>
      <trkpt lat="37.771190" lon="-122.405900">
        <ele>4.251</ele>
        <time>2018-12-27T14:26:20Z</time>
      </trkpt>
      <trkpt lat="37.771380" lon="-122.406040">
        <ele>4.401</ele>
        <time>2018-12-27T14:26:40Z</time>
      </trkpt>
      <trkpt lat="37.771540" lon="-122.406150">
        <ele>4.611</ele>
        <time>2018-12-27T14:27:00Z</time>
      </trkpt>
      <trkpt lat="37.771650" lon="-122.406220">
        <ele>4.608</ele>
        <time>2018-12-27T14:27:20Z</time>
      </trkpt>
      <trkpt lat="37.771780" lon="-122.406290">
        <ele>4.848</ele>
        <time>2018-12-27T14:27:40Z</time>
      </trkpt>
      <trkpt lat="37.771860" lon="-122.406330">
        <ele>4.916</ele>
        <time>2018-12-27T14:28:00Z</time>
      </trkpt>
      <trkpt lat="37.771930" lon="-122.406350">
        <ele>5.121</ele>
        <time>2018-12-27T14:28:20Z</time>
      </trkpt>
      <trkpt lat="37.772030" lon="-122.406400">
        <ele>5.340</ele>
        <time>2018-12-27T14:28:40Z</time>
      </trkpt>
      <trkpt lat="37.772170" lon="-122.406450">
        <ele>5.624</ele>
        <time>2018-12-27T14:29:00Z</time>
      </trkpt>
      <trkpt lat="37.772220" lon="-122.406470">
        <ele>5.760</ele>
        <time>2018-12-27T14:29:20Z</time>
      </trkpt>
      <trkpt lat="37.772320" lon="-122.406490">
        <ele>5.877</ele>
        <time>2018-12-27T14:29:40Z</time>
      </trkpt>
      <trkpt lat="37.772400" lon="-122.406510">
        <ele>5.991</ele>
        <time>2018-12-27T14:30:00Z</time>
      </trkpt>
      <trkpt lat="37.772530" lon="-122.406540">
        <ele>6.032</ele>
        <time>2018-12-27T14:30:20Z</time>
      </trkpt>
      <trkpt lat="37.772630" lon="-122.406550">
        <ele>6.192</ele>
        <time>2018-12-27T14:30:40Z</time>
      </trkpt>
      <trkpt lat="37.772720" lon="-122.406570">
        <ele>6.211</ele>
        <time>2018-12-27T14:31:00Z</time>
      </trkpt>
      <trkpt lat="37.772810" lon="-122.406570">
        <ele>6.308</ele>
        <time>2018-12-27T14:31:20Z</time>
      </trkpt>
      <trkpt lat="37.772840" lon="-122.406570">
        <ele>6.426</ele>
        <time>2018-12-27T14:31:40Z</time>
      </trkpt>
      <trkpt lat="37.772910" lon="-122.406570">
        <ele>6.454</ele>
        <time>2018-12-27T14:32:00Z</time>
      </trkpt>
      <trkpt lat="37.773000" lon="-122.406570">
        <ele>6.579</ele>
        <time>2018-12-27T14:32:20Z</time>
      </trkpt>
      <trkpt lat="37.773160" lon="-122.406560">
        <ele>6.678</ele>
        <time>2018-12-27T14:32:40Z</time>
      </trkpt>
      <trkpt lat="37.773320" lon="-122.406580">
        <ele>6.632</ele>
        <time>2018-12-27T14:33:00Z</time>
      </trkpt>
      <trkpt lat="37.773430" lon="-122.406550">
        <ele>6.588</ele>
        <time>2018-12-27T14:33:20Z</time>
      </trkpt>
      <trkpt lat="37.773540" lon="-122.406520">
        <ele>6.645</ele>
        <time>2018-12-27T14:33:40Z</time>
      </trkpt>
      <trkpt lat="37.773710" lon="-122.406460">
        <ele>6.949</ele>
        <time>2018-12-27T14:34:00Z</time>
      </trkpt>
      <trkpt lat="37.773930" lon="-122.406390">
        <ele>7.527</ele>
        <time>2018-12-27T14:34:20Z</time>
      </trkpt>
      <trkpt lat="37.774170" lon="-122.406270">
        <ele>7.768</ele>
        <time>2018-12-27T14:34:40Z</time>
      </trkpt>
      <trkpt lat="37.774330" lon="-122.406190">
        <ele>7.814</ele>
        <time>2018-12-27T14:35:00Z</time>
      </trkpt>
      <trkpt lat="37.774520" lon="-122.406080">
        <ele>6.208</ele>
        <time>2018-12-27T14:35:20Z</time>
      </trkpt>
      <trkpt lat="37.774740" lon="-122.405940">
        <ele>5.855</ele>
        <time>2018-12-27T14:35:40Z</time>
      </trkpt>
      <trkpt lat="37.774920" lon="-122.405810">
        <ele>5.623</ele>
        <time>2018-12-27T14:36:00Z</time>
      </trkpt>
      <trkpt lat="37.775010" lon="-122.405750">
        <ele>5.648</ele>
        <time>2018-12-27T14:36:20Z</time>
      </trkpt>
      <trkpt lat="37.775050" lon="-122.405720">
        <ele>5.687</ele>
        <time>2018-12-27T14:36:40Z</time>
      </trkpt>
      <trkpt lat="37.775130" lon="-122.405660">
        <ele>5.641</ele>
        <time>2018-12-27T14:37:00Z</time>
      </trkpt>
      <trkpt lat="37.775320" lon="-122.405490">
        <ele>5.657</ele>
        <time>2018-12-27T14:37:20Z</time>
      </trkpt>
      <trkpt lat="37.775450" lon="-122.405390">
        <ele>5.794</ele>
        <time>2018-12-27T14:37:40Z</time>
      </trkpt>
      <trkpt lat="37.775580" lon="-122.405260">
        <ele>5.548</ele>
        <time>2018-12-27T14:38:00Z</time>
      </trkpt>
      <trkpt lat="37.775800" lon="-122.405020">
        <ele>5.497</ele>
        <time>2018-12-27T14:38:20Z</time>
      </trkpt>
      <trkpt lat="37.775870" lon="-122.404950">
        <ele>5.423</ele>
        <time>2018-12-27T14:38:40Z</time>
      </trkpt>
      <trkpt lat="37.776010" lon="-122.404800">
        <ele>5.325</ele>
        <time>2018-12-27T14:39:00Z</time>
      </trkpt>
      <trkpt lat="37.776160" lon="-122.404610">
        <ele>5.108</ele>
        <time>2018-12-27T14:39:20Z</time>
      </trkpt>
      <trkpt lat="37.776280" lon="-122.404450">
        <ele>5.142</ele>
        <time>2018-12-27T14:39:40Z</time>
      </trkpt>
      <trkpt lat="37.776380" lon="-122.404300">
        <ele>5.010</ele>
        <time>2018-12-27T14:40:00Z</time>
      </trkpt>
      <trkpt lat="37.776430" lon="-122.404220">
        <ele>4.695</ele>
        <time>2018-12-27T14:40:20Z</time>
      </trkpt>
      <trkpt lat="37.776490" lon="-122.404130">
        <ele>4.414</ele>
        <time>2018-12-27T14:40:40Z</time>
      </trkpt>
      <trkpt lat="37.776640" lon="-122.403890">
        <ele>4.248</ele>
        <time>2018-12-27T14:41:00Z</time>
      </trkpt>
      <trkpt lat="37.776780" lon="-122.403630">
        <ele>4.144</ele>
        <time>2018-12-27T14:41:20Z</time>
      </trkpt>
      <trkpt lat="37.776930" lon="-122.403360">
        <ele>3.891</ele>
        <time>2018-12-27T14:41:40Z</time>
      </trkpt>
      <trkpt lat="37.777060" lon="-122.403090">
        <ele>3.235</ele>
        <time>2018-12-27T14:42:00Z</time>
      </trkpt>
      <trkpt lat="37.777220" lon="-122.402800">
        <ele>3.066</ele>
        <time>2018-12-27T14:42:20Z</time>
      </trkpt>
      <trkpt lat="37.777790" lon="-122.401710">
        <ele>2.929</ele>
        <time>2018-12-27T14:42:40Z</time>
      </trkpt>
      <trkpt lat="37.777900" lon="-122.401480">
        <ele>2.721</ele>
        <time>2018-12-27T14:43:00Z</time>
      </trkpt>
      <trkpt lat="37.777910" lon="-122.401470">
        <ele>2.608</ele>
        <time>2018-12-27T14:43:20Z</time>
      </trkpt>
      <trkpt lat="37.778020" lon="-122.401270">
        <ele>3.029</ele>
        <time>2018-12-27T14:43:40Z</time>
      </trkpt>
      <trkpt lat="37.778210" lon="-122.400950">
        <ele>3.057</ele>
        <time>2018-12-27T14:44:00Z</time>
      </trkpt>
      <trkpt lat="37.778260" lon="-122.400870">
        <ele>3.252</ele>
        <time>2018-12-27T14:44:20Z</time>
      </trkpt>
      <trkpt lat="37.778280" lon="-122.400840">
        <ele>3.361</ele>
        <time>2018-12-27T14:44:40Z</time>
      </trkpt>
      <trkpt lat="37.778660" lon="-122.400320">
        <ele>4.485</ele>
        <time>2018-12-27T14:45:00Z</time>
      </trkpt>
      <trkpt lat="37.778690" lon="-122.400290">
        <ele>4.451</ele>
        <time>2018-12-27T14:45:20Z</time>
      </trkpt>
      <trkpt lat="37.778730" lon="-122.400230">
        <ele>4.488</ele>
        <time>2018-12-27T14:45:40Z</time>
      </trkpt>
      <trkpt lat="37.778990" lon="-122.399940">
        <ele>4.422</ele>
        <time>2018-12-27T14:46:00Z</time>
      </trkpt>
      <trkpt lat="37.779800" lon="-122.399000">
        <ele>4.293</ele>
        <time>2018-12-27T14:46:20Z</time>
      </trkpt>
      <trkpt lat="37.780060" lon="-122.398710">
        <ele>4.365</ele>
        <time>2018-12-27T14:46:40Z</time>
      </trkpt>
      <trkpt lat="37.780060" lon="-122.398700">
        <ele>4.321</ele>
        <time>2018-12-27T14:47:00Z</time>
      </trkpt>
      <trkpt lat="37.780080" lon="-122.398680">
        <ele>4.308</ele>
        <time>2018-12-27T14:47:20Z</time>
      </trkpt>
      <trkpt lat="37.780150" lon="-122.398590">
        <ele>4.232</ele>
        <time>2018-12-27T14:47:40Z</time>
      </trkpt>
      <trkpt lat="37.780550" lon="-122.398120">
        <ele>4.960</ele>
        <time>2018-12-27T14:48:00Z</time>
      </trkpt>
      <trkpt lat="37.780800" lon="-122.397820">
        <ele>5.245</ele>
        <time>2018-12-27T14:48:20Z</time>
      </trkpt>
      <trkpt lat="37.781910" lon="-122.396520">
        <ele>6.514</ele>
        <time>2018-12-27T14:48:40Z</time>
      </trkpt>
      <trkpt lat="37.782270" lon="-122.396120">
        <ele>9.328</ele>
        <time>2018-12-27T14:49:00Z</time>
      </trkpt>
      <trkpt lat="37.782850" lon="-122.395440">
        <ele>15.594</ele>
        <time>2018-12-27T14:49:20Z</time>
      </trkpt>
      <trkpt lat="37.783530" lon="-122.394590">
        <ele>18.031</ele>
        <time>2018-12-27T14:49:40Z</time>
      </trkpt>
      <trkpt lat="37.783690" lon="-122.394390">
        <ele>18.035</ele>
        <time>2018-12-27T14:50:00Z</time>
      </trkpt>
      <trkpt lat="37.783700" lon="-122.394380">
        <ele>18.099</ele>
        <time>2018-12-27T14:50:20Z</time>
      </trkpt>
      <trkpt lat="37.783720" lon="-122.394350">
        <ele>18.007</ele>
        <time>2018-12-27T14:50:40Z</time>
      </trkpt>
      <trkpt lat="37.783730" lon="-122.394340">
        <ele>18.027</ele>
        <time>2018-12-27T14:51:00Z</time>
      </trkpt>
      <trkpt lat="37.783850" lon="-122.394200">
        <ele>18.308</ele>
        <time>2018-12-27T14:51:20Z</time>
      </trkpt>
      <trkpt lat="37.784380" lon="-122.393510">
        <ele>27.062</ele>
        <time>2018-12-27T14:51:40Z</time>
      </trkpt>
      <trkpt lat="37.784610" lon="-122.393190">
        <ele>27.920</ele>
        <time>2018-12-27T14:52:00Z</time>
      </trkpt>
      <trkpt lat="37.784980" lon="-122.392550">
        <ele>29.365</ele>
        <time>2018-12-27T14:52:20Z</time>
      </trkpt>
      <trkpt lat="37.785340" lon="-122.391900">
        <ele>32.034</ele>
        <time>2018-12-27T14:52:40Z</time>
      </trkpt>
      <trkpt lat="37.785440" lon="-122.391720">
        <ele>32.438</ele>
        <time>2018-12-27T14:53:00Z</time>
      </trkpt>
      <trkpt lat="37.785530" lon="-122.391540">
        <ele>30.474</ele>
        <time>2018-12-27T14:53:20Z</time>
      </trkpt>
      <trkpt lat="37.785630" lon="-122.391360">
        <ele>25.911</ele>
        <time>2018-12-27T14:53:40Z</time>
      </trkpt>
      <trkpt lat="37.785660" lon="-122.391290">
        <ele>25.145</ele>
        <time>2018-12-27T14:54:00Z</time>
      </trkpt>
      <trkpt lat="37.785770" lon="-122.391140">
        <ele>23.772</ele>
        <time>2018-12-27T14:54:20Z</time>
      </trkpt>
      <trkpt lat="37.785850" lon="-122.391010">
        <ele>23.013</ele>
        <time>2018-12-27T14:54:40Z</time>
      </trkpt>
      <trkpt lat="37.785990" lon="-122.390840">
        <ele>22.414</ele>
        <time>2018-12-27T14:55:00Z</time>
      </trkpt>
      <trkpt lat="37.786120" lon="-122.390660">
        <ele>18.708</ele>
        <time>2018-12-27T14:55:20Z</time>
      </trkpt>
      <trkpt lat="37.786410" lon="-122.390330">
        <ele>5.710</ele>
        <time>2018-12-27T14:55:40Z</time>
      </trkpt>
      <trkpt lat="37.786700" lon="-122.390000">
        <ele>4.268</ele>
        <time>2018-12-27T14:56:00Z</time>
      </trkpt>
      <trkpt lat="37.786980" lon="-122.389680">
        <ele>4.963</ele>
        <time>2018-12-27T14:56:20Z</time>
      </trkpt>
      <trkpt lat="37.787260" lon="-122.389360">
        <ele>4.912</ele>
        <time>2018-12-27T14:56:40Z</time>
      </trkpt>
      <trkpt lat="37.787510" lon="-122.389090">
        <ele>5.976</ele>
        <time>2018-12-27T14:57:00Z</time>
      </trkpt>
      <trkpt lat="37.788290" lon="-122.388230">
        <ele>3.442</ele>
        <time>2018-12-27T14:57:20Z</time>
      </trkpt>
      <trkpt lat="37.788730" lon="-122.387830">
        <ele>3.329</ele>
        <time>2018-12-27T14:57:40Z</time>
      </trkpt>
      <trkpt lat="37.788890" lon="-122.387690">
        <ele>3.133</ele>
        <time>2018-12-27T14:58:00Z</time>
      </trkpt>
      <trkpt lat="37.789520" lon="-122.387020">
        <ele>0.013</ele>
        <time>2018-12-27T14:58:20Z</time>
      </trkpt>
      <trkpt lat="37.789920" lon="-122.386660">
        <ele>0.043</ele>
        <time>2018-12-27T14:58:40Z</time>
      </trkpt>
      <trkpt lat="37.790750" lon="-122.385760">
        <ele>0.007</ele>
        <time>2018-12-27T14:59:00Z</time>
      </trkpt>
      <trkpt lat="37.791580" lon="-122.384910">
        <ele>0.008</ele>
        <time>2018-12-27T14:59:20Z</time>
      </trkpt>
      <trkpt lat="37.791830" lon="-122.384650">
        <ele>0.024</ele>
        <time>2018-12-27T14:59:40Z</time>
      </trkpt>
      <trkpt lat="37.792060" lon="-122.384410">
        <ele>0.032</ele>
        <time>2018-12-27T15:00:00Z</time>
      </trkpt>
      <trkpt lat="37.792290" lon="-122.384170">
        <ele>-0.147</ele>
        <time>2018-12-27T15:00:20Z</time>
      </trkpt>
      <trkpt lat="37.792550" lon="-122.383900">
        <ele>-0.146</ele>
        <time>2018-12-27T15:00:40Z</time>
      </trkpt>
      <trkpt lat="37.792810" lon="-122.383630">
        <ele>-0.190</ele>
        <time>2018-12-27T15:01:00Z</time>
      </trkpt>
      <trkpt lat="37.793100" lon="-122.383320">
        <ele>-0.146</ele>
        <time>2018-12-27T15:01:20Z</time>
      </trkpt>
      <trkpt lat="37.793380" lon="-122.383010">
        <ele>-0.053</ele>
        <time>2018-12-27T15:01:40Z</time>
      </trkpt>
      <trkpt lat="37.793780" lon="-122.382560">
        <ele>-0.077</ele>
        <time>2018-12-27T15:02:00Z</time>
      </trkpt>
      <trkpt lat="37.794270" lon="-122.382020">
        <ele>-0.061</ele>
        <time>2018-12-27T15:02:20Z</time>
      </trkpt>
      <trkpt lat="37.794560" lon="-122.381720">
        <ele>-0.021</ele>
        <time>2018-12-27T15:02:40Z</time>
      </trkpt>
      <trkpt lat="37.794760" lon="-122.381500">
        <ele>-0.013</ele>
        <time>2018-12-27T15:03:00Z</time>
      </trkpt>
      <trkpt lat="37.796030" lon="-122.380120">
        <ele>-0.008</ele>
        <time>2018-12-27T15:03:20Z</time>
      </trkpt>
      <trkpt lat="37.797310" lon="-122.378740">
        <ele>0.089</ele>
        <time>2018-12-27T15:03:40Z</time>
      </trkpt>
      <trkpt lat="37.797550" lon="-122.378490">
        <ele>0.087</ele>
        <time>2018-12-27T15:04:00Z</time>
      </trkpt>
      <trkpt lat="37.797780" lon="-122.378250">
        <ele>0.032</ele>
        <time>2018-12-27T15:04:20Z</time>
      </trkpt>
      <trkpt lat="37.797960" lon="-122.378070">
        <ele>0.081</ele>
        <time>2018-12-27T15:04:40Z</time>
      </trkpt>
      <trkpt lat="37.798120" lon="-122.377890">
        <ele>0.095</ele>
        <time>2018-12-27T15:05:00Z</time>
      </trkpt>
      <trkpt lat="37.798440" lon="-122.377560">
        <ele>0.081</ele>
        <time>2018-12-27T15:05:20Z</time>
      </trkpt>
      <trkpt lat="37.798760" lon="-122.377220">
        <ele>0.088</ele>
        <time>2018-12-27T15:05:40Z</time>
      </trkpt>
      <trkpt lat="37.799830" lon="-122.376090">
        <ele>0.062</ele>
        <time>2018-12-27T15:06:00Z</time>
      </trkpt>
      <trkpt lat="37.800910" lon="-122.374970">
        <ele>0.081</ele>
        <time>2018-12-27T15:06:20Z</time>
      </trkpt>
      <trkpt lat="37.801770" lon="-122.374070">
        <ele>0.061</ele>
        <time>2018-12-27T15:06:40Z</time>
      </trkpt>
      <trkpt lat="37.802630" lon="-122.373170">
        <ele>0.017</ele>
        <time>2018-12-27T15:07:00Z</time>
      </trkpt>
      <trkpt lat="37.802930" lon="-122.372860">
        <ele>0.008</ele>
        <time>2018-12-27T15:07:20Z</time>
      </trkpt>
      <trkpt lat="37.803170" lon="-122.372600">
        <ele>0.091</ele>
        <time>2018-12-27T15:07:40Z</time>
      </trkpt>
      <trkpt lat="37.804670" lon="-122.370960">
        <ele>0.019</ele>
        <time>2018-12-27T15:08:00Z</time>
      </trkpt>
      <trkpt lat="37.805320" lon="-122.370250">
        <ele>0.084</ele>
        <time>2018-12-27T15:08:20Z</time>
      </trkpt>
      <trkpt lat="37.805720" lon="-122.369790">
        <ele>0.033</ele>
        <time>2018-12-27T15:08:40Z</time>
      </trkpt>
      <trkpt lat="37.806130" lon="-122.369330">
        <ele>0.037</ele>
        <time>2018-12-27T15:09:00Z</time>
      </trkpt>
      <trkpt lat="37.806640" lon="-122.368780">
        <ele>0.063</ele>
        <time>2018-12-27T15:09:20Z</time>
      </trkpt>
      <trkpt lat="37.807070" lon="-122.368320">
        <ele>0.880</ele>
        <time>2018-12-27T15:09:40Z</time>
      </trkpt>
      <trkpt lat="37.807720" lon="-122.367620">
        <ele>0.994</ele>
        <time>2018-12-27T15:10:00Z</time>
      </trkpt>
      <trkpt lat="37.807880" lon="-122.367480">
        <ele>9.486</ele>
        <time>2018-12-27T15:10:20Z</time>
      </trkpt>
      <trkpt lat="37.808050" lon="-122.367340">
        <ele>25.760</ele>
        <time>2018-12-27T15:10:40Z</time>
      </trkpt>
      <trkpt lat="37.808170" lon="-122.367190">
        <ele>36.226</ele>
        <time>2018-12-27T15:11:00Z</time>
      </trkpt>
      <trkpt lat="37.808300" lon="-122.367030">
        <ele>41.608</ele>
        <time>2018-12-27T15:11:20Z</time>
      </trkpt>
      <trkpt lat="37.808620" lon="-122.366710">
        <ele>45.331</ele>
        <time>2018-12-27T15:11:40Z</time>
      </trkpt>
      <trkpt lat="37.808930" lon="-122.366390">
        <ele>55.299</ele>
        <time>2018-12-27T15:12:00Z</time>
      </trkpt>
      <trkpt lat="37.809600" lon="-122.365650">
        <ele>101.784</ele>
        <time>2018-12-27T15:12:20Z</time>
      </trkpt>
      <trkpt lat="37.810270" lon="-122.364910">
        <ele>58.373</ele>
        <time>2018-12-27T15:12:40Z</time>
      </trkpt>
      <trkpt lat="37.810550" lon="-122.364610">
        <ele>58.017</ele>
        <time>2018-12-27T15:13:00Z</time>
      </trkpt>
      <trkpt lat="37.810840" lon="-122.364310">
        <ele>52.863</ele>
        <time>2018-12-27T15:13:20Z</time>
      </trkpt>
      <trkpt lat="37.811250" lon="-122.363890">
        <ele>49.780</ele>
        <time>2018-12-27T15:13:40Z</time>
      </trkpt>
      <trkpt lat="37.811290" lon="-122.363850">
        <ele>49.854</ele>
        <time>2018-12-27T15:14:00Z</time>
      </trkpt>
      <trkpt lat="37.811480" lon="-122.363660">
        <ele>48.053</ele>
        <time>2018-12-27T15:14:20Z</time>
      </trkpt>
      <trkpt lat="37.811670" lon="-122.363470">
        <ele>44.104</ele>
        <time>2018-12-27T15:14:40Z</time>
      </trkpt>
      <trkpt lat="37.812010" lon="-122.363130">
        <ele>28.914</ele>
        <time>2018-12-27T15:15:00Z</time>
      </trkpt>
      <trkpt lat="37.812340" lon="-122.362770">
        <ele>19.708</ele>
        <time>2018-12-27T15:15:20Z</time>
      </trkpt>
      <trkpt lat="37.812640" lon="-122.362420">
        <ele>11.858</ele>
        <time>2018-12-27T15:15:40Z</time>
      </trkpt>
      <trkpt lat="37.812930" lon="-122.362060">
        <ele>10.256</ele>
        <time>2018-12-27T15:16:00Z</time>
      </trkpt>
      <trkpt lat="37.813210" lon="-122.361670">
        <ele>9.761</ele>
        <time>2018-12-27T15:16:20Z</time>
      </trkpt>
      <trkpt lat="37.813420" lon="-122.361360">
        <ele>10.140</ele>
        <time>2018-12-27T15:16:40Z</time>
      </trkpt>
      <trkpt lat="37.813610" lon="-122.361060">
        <ele>12.034</ele>
        <time>2018-12-27T15:17:00Z</time>
      </trkpt>
      <trkpt lat="37.813820" lon="-122.360730">
        <ele>16.930</ele>
        <time>2018-12-27T15:17:20Z</time>
      </trkpt>
      <trkpt lat="37.814090" lon="-122.360240">
        <ele>17.927</ele>
        <time>2018-12-27T15:17:40Z</time>
      </trkpt>
      <trkpt lat="37.814490" lon="-122.359540">
        <ele>13.131</ele>
        <time>2018-12-27T15:18:00Z</time>
      </trkpt>
      <trkpt lat="37.814760" lon="-122.359050">
        <ele>2.738</ele>
        <time>2018-12-27T15:18:20Z</time>
      </trkpt>
      <trkpt lat="37.814860" lon="-122.358880">
        <ele>1.070</ele>
        <time>2018-12-27T15:18:40Z</time>
      </trkpt>
      <trkpt lat="37.816210" lon="-122.356510">
        <ele>-0.017</ele>
        <time>2018-12-27T15:19:00Z</time>
      </trkpt>
      <trkpt lat="37.817290" lon="-122.354610">
        <ele>-0.008</ele>
        <time>2018-12-27T15:19:20Z</time>
      </trkpt>
      <trkpt lat="37.817380" lon="-122.354450">
        <ele>-0.076</ele>
        <time>2018-12-27T15:19:40Z</time>
      </trkpt>
      <trkpt lat="37.817510" lon="-122.354190">
        <ele>-0.084</ele>
        <time>2018-12-27T15:20:00Z</time>
      </trkpt>
      <trkpt lat="37.817570" lon="-122.354060">
        <ele>-0.019</ele>
        <time>2018-12-27T15:20:20Z</time>
      </trkpt>
      <trkpt lat="37.817640" lon="-122.353910">
        <ele>-0.058</ele>
        <time>2018-12-27T15:20:40Z</time>
      </trkpt>
      <trkpt lat="37.817700" lon="-122.353780">
        <ele>-0.092</ele>
        <time>2018-12-27T15:21:00Z</time>
      </trkpt>
      <trkpt lat="37.817760" lon="-122.353650">
        <ele>-0.078</ele>
        <time>2018-12-27T15:21:20Z</time>
      </trkpt>
      <trkpt lat="37.817820" lon="-122.353490">
        <ele>0.045</ele>
        <time>2018-12-27T15:21:40Z</time>
      </trkpt>
      <trkpt lat="37.817930" lon="-122.353240">
        <ele>0.069</ele>
        <time>2018-12-27T15:22:00Z</time>
      </trkpt>
      <trkpt lat="37.818020" lon="-122.353000">
        <ele>0.046</ele>
        <time>2018-12-27T15:22:20Z</time>
      </trkpt>
      <trkpt lat="37.818100" lon="-122.352780">
        <ele>0.088</ele>
        <time>2018-12-27T15:22:40Z</time>
      </trkpt>
      <trkpt lat="37.818160" lon="-122.352620">
        <ele>0.016</ele>
        <time>2018-12-27T15:23:00Z</time>
      </trkpt>
      <trkpt lat="37.818230" lon="-122.352410">
        <ele>0.008</ele>
        <time>2018-12-27T15:23:20Z</time>
      </trkpt>
      <trkpt lat="37.818300" lon="-122.352170">
        <ele>0.047</ele>
        <time>2018-12-27T15:23:40Z</time>
      </trkpt>
      <trkpt lat="37.818380" lon="-122.351930">
        <ele>0.055</ele>
        <time>2018-12-27T15:24:00Z</time>
      </trkpt>
      <trkpt lat="37.818440" lon="-122.351690">
        <ele>0.060</ele>
        <time>2018-12-27T15:24:20Z</time>
      </trkpt>
      <trkpt lat="37.818480" lon="-122.351550">
        <ele>0.089</ele>
        <time>2018-12-27T15:24:40Z</time>
      </trkpt>
      <trkpt lat="37.818520" lon="-122.351370">
        <ele>0.043</ele>
        <time>2018-12-27T15:25:00Z</time>
      </trkpt>
      <trkpt lat="37.818590" lon="-122.351100">
        <ele>0.049</ele>
        <time>2018-12-27T15:25:20Z</time>
      </trkpt>
      <trkpt lat="37.818640" lon="-122.350850">
        <ele>0.036</ele>
        <time>2018-12-27T15:25:40Z</time>
      </trkpt>
      <trkpt lat="37.818700" lon="-122.350570">
        <ele>0.070</ele>
        <time>2018-12-27T15:26:00Z</time>
      </trkpt>
      <trkpt lat="37.818750" lon="-122.350260">
        <ele>0.094</ele>
        <time>2018-12-27T15:26:20Z</time>
      </trkpt>
      <trkpt lat="37.818810" lon="-122.349890">
        <ele>0.057</ele>
        <time>2018-12-27T15:26:40Z</time>
      </trkpt>
      <trkpt lat="37.818970" lon="-122.348760">
        <ele>0.122</ele>
        <time>2018-12-27T15:27:00Z</time>
      </trkpt>
      <trkpt lat="37.819140" lon="-122.347560">
        <ele>0.108</ele>
        <time>2018-12-27T15:27:20Z</time>
      </trkpt>
      <trkpt lat="37.819430" lon="-122.345590">
        <ele>0.122</ele>
        <time>2018-12-27T15:27:40Z</time>
      </trkpt>
      <trkpt lat="37.819670" lon="-122.343780">
        <ele>0.180</ele>
        <time>2018-12-27T15:28:00Z</time>
      </trkpt>
      <trkpt lat="37.819940" lon="-122.341990">
        <ele>0.115</ele>
        <time>2018-12-27T15:28:20Z</time>
      </trkpt>
      <trkpt lat="37.820050" lon="-122.341280">
        <ele>0.154</ele>
        <time>2018-12-27T15:28:40Z</time>
      </trkpt>
      <trkpt lat="37.820160" lon="-122.340470">
        <ele>0.128</ele>
        <time>2018-12-27T15:29:00Z</time>
      </trkpt>
      <trkpt lat="37.820310" lon="-122.339430">
        <ele>0.164</ele>
        <time>2018-12-27T15:29:20Z</time>
      </trkpt>
      <trkpt lat="37.820600" lon="-122.337510">
        <ele>0.191</ele>
        <time>2018-12-27T15:29:40Z</time>
      </trkpt>
      <trkpt lat="37.821160" lon="-122.333720">
        <ele>0.195</ele>
        <time>2018-12-27T15:30:00Z</time>
      </trkpt>
      <trkpt lat="37.821240" lon="-122.333130">
        <ele>0.198</ele>
        <time>2018-12-27T15:30:20Z</time>
      </trkpt>
      <trkpt lat="37.821320" lon="-122.332570">
        <ele>0.115</ele>
        <time>2018-12-27T15:30:40Z</time>
      </trkpt>
      <trkpt lat="37.821380" lon="-122.332100">
        <ele>0.126</ele>
        <time>2018-12-27T15:31:00Z</time>
      </trkpt>
      <trkpt lat="37.821410" lon="-122.331860">
        <ele>0.008</ele>
        <time>2018-12-27T15:31:20Z</time>
      </trkpt>
      <trkpt lat="37.821450" lon="-122.331590">
        <ele>0.022</ele>
        <time>2018-12-27T15:31:40Z</time>
      </trkpt>
      <trkpt lat="37.821490" lon="-122.331250">
        <ele>0.050</ele>
        <time>2018-12-27T15:32:00Z</time>
      </trkpt>
      <trkpt lat="37.821510" lon="-122.331080">
        <ele>0.055</ele>
        <time>2018-12-27T15:32:20Z</time>
      </trkpt>
      <trkpt lat="37.821570" lon="-122.330530">
        <ele>0.044</ele>
        <time>2018-12-27T15:32:40Z</time>
      </trkpt>
      <trkpt lat="37.821600" lon="-122.330270">
        <ele>0.678</ele>
        <time>2018-12-27T15:33:00Z</time>
      </trkpt>
      <trkpt lat="37.821620" lon="-122.330050">
        <ele>1.064</ele>
        <time>2018-12-27T15:33:20Z</time>
      </trkpt>
      <trkpt lat="37.821660" lon="-122.329670">
        <ele>1.371</ele>
        <time>2018-12-27T15:33:40Z</time>
      </trkpt>
      <trkpt lat="37.821690" lon="-122.329370">
        <ele>1.365</ele>
        <time>2018-12-27T15:34:00Z</time>
      </trkpt>
      <trkpt lat="37.821730" lon="-122.328970">
        <ele>3.513</ele>
        <time>2018-12-27T15:34:20Z</time>
      </trkpt>
      <trkpt lat="37.821760" lon="-122.328540">
        <ele>4.043</ele>
        <time>2018-12-27T15:34:40Z</time>
      </trkpt>
      <trkpt lat="37.821790" lon="-122.328180">
        <ele>4.107</ele>
        <time>2018-12-27T15:35:00Z</time>
      </trkpt>
      <trkpt lat="37.821890" lon="-122.327060">
        <ele>3.908</ele>
        <time>2018-12-27T15:35:20Z</time>
      </trkpt>
      <trkpt lat="37.821990" lon="-122.325860">
        <ele>4.284</ele>
        <time>2018-12-27T15:35:40Z</time>
      </trkpt>
      <trkpt lat="37.822020" lon="-122.325550">
        <ele>4.292</ele>
        <time>2018-12-27T15:36:00Z</time>
      </trkpt>
      <trkpt lat="37.822040" lon="-122.325280">
        <ele>4.397</ele>
        <time>2018-12-27T15:36:20Z</time>
      </trkpt>
      <trkpt lat="37.822090" lon="-122.324740">
        <ele>4.566</ele>
        <time>2018-12-27T15:36:40Z</time>
      </trkpt>
      <trkpt lat="37.822110" lon="-122.324420">
        <ele>4.350</ele>
        <time>2018-12-27T15:37:00Z</time>
      </trkpt>
      <trkpt lat="37.822140" lon="-122.324100">
        <ele>4.226</ele>
        <time>2018-12-27T15:37:20Z</time>
      </trkpt>
      <trkpt lat="37.822220" lon="-122.323200">
        <ele>4.213</ele>
        <time>2018-12-27T15:37:40Z</time>
      </trkpt>
      <trkpt lat="37.822230" lon="-122.323110">
        <ele>4.117</ele>
        <time>2018-12-27T15:38:00Z</time>
      </trkpt>
      <trkpt lat="37.822240" lon="-122.323040">
        <ele>4.157</ele>
        <time>2018-12-27T15:38:20Z</time>
      </trkpt>
      <trkpt lat="37.822250" lon="-122.322950">
        <ele>4.000</ele>
        <time>2018-12-27T15:38:40Z</time>
      </trkpt>
      <trkpt lat="37.822270" lon="-122.322760">
        <ele>4.120</ele>
        <time>2018-12-27T15:39:00Z</time>
      </trkpt>
      <trkpt lat="37.822320" lon="-122.322450">
        <ele>4.208</ele>
        <time>2018-12-27T15:39:20Z</time>
      </trkpt>
      <trkpt lat="37.822370" lon="-122.322130">
        <ele>4.298</ele>
        <time>2018-12-27T15:39:40Z</time>
      </trkpt>
      <trkpt lat="37.822440" lon="-122.321660">
        <ele>4.246</ele>
        <time>2018-12-27T15:40:00Z</time>
      </trkpt>
      <trkpt lat="37.822480" lon="-122.321430">
        <ele>4.291</ele>
        <time>2018-12-27T15:40:20Z</time>
      </trkpt>
      <trkpt lat="37.822520" lon="-122.321200">
        <ele>4.320</ele>
        <time>2018-12-27T15:40:40Z</time>
      </trkpt>
      <trkpt lat="37.822550" lon="-122.321030">
        <ele>4.224</ele>
        <time>2018-12-27T15:41:00Z</time>
      </trkpt>
      <trkpt lat="37.822670" lon="-122.320370">
        <ele>4.250</ele>
        <time>2018-12-27T15:41:20Z</time>
      </trkpt>
      <trkpt lat="37.822810" lon="-122.319560">
        <ele>4.067</ele>
        <time>2018-12-27T15:41:40Z</time>
      </trkpt>
      <trkpt lat="37.822830" lon="-122.319440">
        <ele>4.081</ele>
        <time>2018-12-27T15:42:00Z</time>
      </trkpt>
      <trkpt lat="37.822890" lon="-122.319090">
        <ele>3.964</ele>
        <time>2018-12-27T15:42:20Z</time>
      </trkpt>
      <trkpt lat="37.822920" lon="-122.318930">
        <ele>3.906</ele>
        <time>2018-12-27T15:42:40Z</time>
      </trkpt>
      <trkpt lat="37.822950" lon="-122.318710">
        <ele>3.716</ele>
        <time>2018-12-27T15:43:00Z</time>
      </trkpt>
      <trkpt lat="37.823060" lon="-122.318100">
        <ele>3.608</ele>
        <time>2018-12-27T15:43:20Z</time>
      </trkpt>
      <trkpt lat="37.823090" lon="-122.317940">
        <ele>3.659</ele>
        <time>2018-12-27T15:43:40Z</time>
      </trkpt>
      <trkpt lat="37.823240" lon="-122.317000">
        <ele>3.427</ele>
        <time>2018-12-27T15:44:00Z</time>
      </trkpt>
      <trkpt lat="37.823370" lon="-122.316330">
        <ele>3.492</ele>
        <time>2018-12-27T15:44:20Z</time>
      </trkpt>
      <trkpt lat="37.823610" lon="-122.315010">
        <ele>3.421</ele>
        <time>2018-12-27T15:44:40Z</time>
      </trkpt>
      <trkpt lat="37.823840" lon="-122.313750">
        <ele>4.055</ele>
        <time>2018-12-27T15:45:00Z</time>
      </trkpt>
      <trkpt lat="37.823950" lon="-122.313060">
        <ele>3.671</ele>
        <time>2018-12-27T15:45:20Z</time>
      </trkpt>
      <trkpt lat="37.824070" lon="-122.312330">
        <ele>3.328</ele>
        <time>2018-12-27T15:45:40Z</time>
      </trkpt>
      <trkpt lat="37.824200" lon="-122.311600">
        <ele>3.182</ele>
        <time>2018-12-27T15:46:00Z</time>
      </trkpt>
      <trkpt lat="37.824220" lon="-122.311500">
        <ele>3.251</ele>
        <time>2018-12-27T15:46:20Z</time>
      </trkpt>
      <trkpt lat="37.824240" lon="-122.311400">
        <ele>3.301</ele>
        <time>2018-12-27T15:46:40Z</time>
      </trkpt>
      <trkpt lat="37.824260" lon="-122.311240">
        <ele>3.511</ele>
        <time>2018-12-27T15:47:00Z</time>
      </trkpt>
      <trkpt lat="37.824280" lon="-122.311110">
        <ele>3.508</ele>
        <time>2018-12-27T15:47:20Z</time>
      </trkpt>
      <trkpt lat="37.824310" lon="-122.310970">
        <ele>3.778</ele>
        <time>2018-12-27T15:47:40Z</time>
      </trkpt>
      <trkpt lat="37.824320" lon="-122.310860">
        <ele>3.686</ele>
        <time>2018-12-27T15:48:00Z</time>
      </trkpt>
      <trkpt lat="37.824340" lon="-122.310780">
        <ele>3.641</ele>
        <time>2018-12-27T15:48:20Z</time>
      </trkpt>
      <trkpt lat="37.824350" lon="-122.310700">
        <ele>3.520</ele>
        <time>2018-12-27T15:48:40Z</time>
      </trkpt>
      <trkpt lat="37.824360" lon="-122.310610">
        <ele>3.524</ele>
        <time>2018-12-27T15:49:00Z</time>
      </trkpt>
      <trkpt lat="37.824380" lon="-122.310480">
        <ele>3.480</ele>
        <time>2018-12-27T15:49:20Z</time>
      </trkpt>
      <trkpt lat="37.824390" lon="-122.310370">
        <ele>3.447</ele>
        <time>2018-12-27T15:49:40Z</time>
      </trkpt>
      <trkpt lat="37.824410" lon="-122.310240">
        <ele>3.441</ele>
        <time>2018-12-27T15:50:00Z</time>
      </trkpt>
      <trkpt lat="37.824420" lon="-122.310110">
        <ele>3.469</ele>
        <time>2018-12-27T15:50:20Z</time>
      </trkpt>
      <trkpt lat="37.824440" lon="-122.309920">
        <ele>3.504</ele>
        <time>2018-12-27T15:50:40Z</time>
      </trkpt>
      <trkpt lat="37.824460" lon="-122.309800">
        <ele>3.524</ele>
        <time>2018-12-27T15:51:00Z</time>
      </trkpt>
      <trkpt lat="37.824470" lon="-122.309690">
        <ele>3.608</ele>
        <time>2018-12-27T15:51:20Z</time>
      </trkpt>
      <trkpt lat="37.824490" lon="-122.309440">
        <ele>3.719</ele>
        <time>2018-12-27T15:51:40Z</time>
      </trkpt>
      <trkpt lat="37.824610" lon="-122.308360">
        <ele>3.857</ele>
        <time>2018-12-27T15:52:00Z</time>
      </trkpt>
      <trkpt lat="37.824670" lon="-122.307770">
        <ele>3.752</ele>
        <time>2018-12-27T15:52:20Z</time>
      </trkpt>
      <trkpt lat="37.824690" lon="-122.307610">
        <ele>3.791</ele>
        <time>2018-12-27T15:52:40Z</time>
      </trkpt>
      <trkpt lat="37.824710" lon="-122.307350">
        <ele>3.835</ele>
        <time>2018-12-27T15:53:00Z</time>
      </trkpt>
      <trkpt lat="37.824730" lon="-122.307180">
        <ele>3.861</ele>
        <time>2018-12-27T15:53:20Z</time>
      </trkpt>
      <trkpt lat="37.824750" lon="-122.307030">
        <ele>3.848</ele>
        <time>2018-12-27T15:53:40Z</time>
      </trkpt>
      <trkpt lat="37.824760" lon="-122.306910">
        <ele>3.712</ele>
        <time>2018-12-27T15:54:00Z</time>
      </trkpt>
      <trkpt lat="37.824780" lon="-122.306770">
        <ele>3.618</ele>
        <time>2018-12-27T15:54:20Z</time>
      </trkpt>
      <trkpt lat="37.824800" lon="-122.306610">
        <ele>3.698</ele>
        <time>2018-12-27T15:54:40Z</time>
      </trkpt>
      <trkpt lat="37.824830" lon="-122.306420">
        <ele>3.717</ele>
        <time>2018-12-27T15:55:00Z</time>
      </trkpt>
      <trkpt lat="37.824860" lon="-122.306190">
        <ele>3.908</ele>
        <time>2018-12-27T15:55:20Z</time>
      </trkpt>
      <trkpt lat="37.824880" lon="-122.306070">
        <ele>4.094</ele>
        <time>2018-12-27T15:55:40Z</time>
      </trkpt>
      <trkpt lat="37.824910" lon="-122.305930">
        <ele>4.212</ele>
        <time>2018-12-27T15:56:00Z</time>
      </trkpt>
      <trkpt lat="37.824930" lon="-122.305790">
        <ele>4.387</ele>
        <time>2018-12-27T15:56:20Z</time>
      </trkpt>
      <trkpt lat="37.824960" lon="-122.305630">
        <ele>4.326</ele>
        <time>2018-12-27T15:56:40Z</time>
      </trkpt>
      <trkpt lat="37.824990" lon="-122.305470">
        <ele>4.250</ele>
        <time>2018-12-27T15:57:00Z</time>
      </trkpt>
      <trkpt lat="37.825060" lon="-122.305120">
        <ele>4.076</ele>
        <time>2018-12-27T15:57:20Z</time>
      </trkpt>
      <trkpt lat="37.825080" lon="-122.305010">
        <ele>3.933</ele>
        <time>2018-12-27T15:57:40Z</time>
      </trkpt>
      <trkpt lat="37.825160" lon="-122.304670">
        <ele>4.057</ele>
        <time>2018-12-27T15:58:00Z</time>
      </trkpt>
      <trkpt lat="37.825156" lon="-122.304666">
        <ele>4.071</ele>
        <time>2018-12-27T15:58:20Z</time>
      </trkpt>
      <trkpt lat="37.825440" lon="-122.303030">
        <ele>3.641</ele>
        <time>2018-12-27T15:58:40Z</time>
      </trkpt>
      <trkpt lat="37.825490" lon="-122.302730">
        <ele>3.615</ele>
        <time>2018-12-27T15:59:00Z</time>
      </trkpt>
      <trkpt lat="37.825550" lon="-122.302400">
        <ele>3.608</ele>
        <time>2018-12-27T15:59:20Z</time>
      </trkpt>
      <trkpt lat="37.825620" lon="-122.302000">
        <ele>3.990</ele>
        <time>2018-12-27T15:59:40Z</time>
      </trkpt>
      <trkpt lat="37.825670" lon="-122.301750">
        <ele>3.878</ele>
        <time>2018-12-27T16:00:00Z</time>
      </trkpt>
      <trkpt lat="37.825710" lon="-122.301520">
        <ele>4.053</ele>
        <time>2018-12-27T16:00:20Z</time>
      </trkpt>
      <trkpt lat="37.825750" lon="-122.301290">
        <ele>4.042</ele>
        <time>2018-12-27T16:00:40Z</time>
      </trkpt>
      <trkpt lat="37.825800" lon="-122.301030">
        <ele>3.966</ele>
        <time>2018-12-27T16:01:00Z</time>
      </trkpt>
      <trkpt lat="37.825840" lon="-122.300810">
        <ele>3.732</ele>
        <time>2018-12-27T16:01:20Z</time>
      </trkpt>
      <trkpt lat="37.825900" lon="-122.300530">
        <ele>3.889</ele>
        <time>2018-12-27T16:01:40Z</time>
      </trkpt>
      <trkpt lat="37.825950" lon="-122.300290">
        <ele>4.243</ele>
        <time>2018-12-27T16:02:00Z</time>
      </trkpt>
      <trkpt lat="37.826000" lon="-122.300040">
        <ele>4.241</ele>
        <time>2018-12-27T16:02:20Z</time>
      </trkpt>
      <trkpt lat="37.826010" lon="-122.299970">
        <ele>4.281</ele>
        <time>2018-12-27T16:02:40Z</time>
      </trkpt>
      <trkpt lat="37.826030" lon="-122.299890">
        <ele>4.209</ele>
        <time>2018-12-27T16:03:00Z</time>
      </trkpt>
      <trkpt lat="37.826070" lon="-122.299700">
        <ele>4.008</ele>
        <time>2018-12-27T16:03:20Z</time>
      </trkpt>
      <trkpt lat="37.826240" lon="-122.298880">
        <ele>4.887</ele>
        <time>2018-12-27T16:03:40Z</time>
      </trkpt>
      <trkpt lat="37.826350" lon="-122.298410">
        <ele>4.815</ele>
        <time>2018-12-27T16:04:00Z</time>
      </trkpt>
      <trkpt lat="37.826430" lon="-122.298000">
        <ele>5.140</ele>
        <time>2018-12-27T16:04:20Z</time>
      </trkpt>
      <trkpt lat="37.826510" lon="-122.297670">
        <ele>6.719</ele>
        <time>2018-12-27T16:04:40Z</time>
      </trkpt>
      <trkpt lat="37.826680" lon="-122.296960">
        <ele>4.353</ele>
        <time>2018-12-27T16:05:00Z</time>
      </trkpt>
      <trkpt lat="37.826780" lon="-122.296650">
        <ele>4.239</ele>
        <time>2018-12-27T16:05:20Z</time>
      </trkpt>
      <trkpt lat="37.826870" lon="-122.296390">
        <ele>4.276</ele>
        <time>2018-12-27T16:05:40Z</time>
      </trkpt>
      <trkpt lat="37.827110" lon="-122.295790">
        <ele>4.310</ele>
        <time>2018-12-27T16:06:00Z</time>
      </trkpt>
      <trkpt lat="37.827260" lon="-122.295400">
        <ele>3.794</ele>
        <time>2018-12-27T16:06:20Z</time>
      </trkpt>
      <trkpt lat="37.827330" lon="-122.295190">
        <ele>3.657</ele>
        <time>2018-12-27T16:06:40Z</time>
      </trkpt>
      <trkpt lat="37.827380" lon="-122.295020">
        <ele>3.722</ele>
        <time>2018-12-27T16:07:00Z</time>
      </trkpt>
      <trkpt lat="37.827420" lon="-122.294870">
        <ele>3.708</ele>
        <time>2018-12-27T16:07:20Z</time>
      </trkpt>
      <trkpt lat="37.827460" lon="-122.294690">
        <ele>3.772</ele>
        <time>2018-12-27T16:07:40Z</time>
      </trkpt>
      <trkpt lat="37.827480" lon="-122.294590">
        <ele>3.790</ele>
        <time>2018-12-27T16:08:00Z</time>
      </trkpt>
      <trkpt lat="37.827500" lon="-122.294470">
        <ele>3.645</ele>
        <time>2018-12-27T16:08:20Z</time>
      </trkpt>
      <trkpt lat="37.827510" lon="-122.294390">
        <ele>3.644</ele>
        <time>2018-12-27T16:08:40Z</time>
      </trkpt>
      <trkpt lat="37.827520" lon="-122.294290">
        <ele>3.588</ele>
        <time>2018-12-27T16:09:00Z</time>
      </trkpt>
      <trkpt lat="37.827530" lon="-122.294190">
        <ele>3.454</ele>
        <time>2018-12-27T16:09:20Z</time>
      </trkpt>
      <trkpt lat="37.827540" lon="-122.294090">
        <ele>3.491</ele>
        <time>2018-12-27T16:09:40Z</time>
      </trkpt>
      <trkpt lat="37.827540" lon="-122.293970">
        <ele>3.435</ele>
        <time>2018-12-27T16:10:00Z</time>
      </trkpt>
      <trkpt lat="37.827540" lon="-122.293820">
        <ele>3.634</ele>
        <time>2018-12-27T16:10:20Z</time>
      </trkpt>
      <trkpt lat="37.827540" lon="-122.293690">
        <ele>3.655</ele>
        <time>2018-12-27T16:10:40Z</time>
      </trkpt>
      <trkpt lat="37.827540" lon="-122.293560">
        <ele>3.610</ele>
        <time>2018-12-27T16:11:00Z</time>
      </trkpt>
      <trkpt lat="37.827530" lon="-122.293420">
        <ele>3.608</ele>
        <time>2018-12-27T16:11:20Z</time>
      </trkpt>
      <trkpt lat="37.827510" lon="-122.293290">
        <ele>3.536</ele>
        <time>2018-12-27T16:11:40Z</time>
      </trkpt>
      <trkpt lat="37.827500" lon="-122.293150">
        <ele>3.474</ele>
        <time>2018-12-27T16:12:00Z</time>
      </trkpt>
      <trkpt lat="37.827470" lon="-122.293000">
        <ele>3.329</ele>
        <time>2018-12-27T16:12:20Z</time>
      </trkpt>
      <trkpt lat="37.827430" lon="-122.292820">
        <ele>3.268</ele>
        <time>2018-12-27T16:12:40Z</time>
      </trkpt>
      <trkpt lat="37.827420" lon="-122.292780">
        <ele>3.222</ele>
        <time>2018-12-27T16:13:00Z</time>
      </trkpt>
      <trkpt lat="37.827420" lon="-122.292770">
        <ele>3.298</ele>
        <time>2018-12-27T16:13:20Z</time>
      </trkpt>
      <trkpt lat="37.827410" lon="-122.292710">
        <ele>3.155</ele>
        <time>2018-12-27T16:13:40Z</time>
      </trkpt>
      <trkpt lat="37.827400" lon="-122.292690">
        <ele>3.169</ele>
        <time>2018-12-27T16:14:00Z</time>
      </trkpt>
      <trkpt lat="37.827380" lon="-122.292600">
        <ele>3.156</ele>
        <time>2018-12-27T16:14:20Z</time>
      </trkpt>
      <trkpt lat="37.827350" lon="-122.292500">
        <ele>3.059</ele>
        <time>2018-12-27T16:14:40Z</time>
      </trkpt>
      <trkpt lat="37.827310" lon="-122.292360">
        <ele>2.914</ele>
        <time>2018-12-27T16:15:00Z</time>
      </trkpt>
      <trkpt lat="37.827270" lon="-122.292260">
        <ele>2.208</ele>
        <time>2018-12-27T16:15:20Z</time>
      </trkpt>
      <trkpt lat="37.827230" lon="-122.292160">
        <ele>1.898</ele>
        <time>2018-12-27T16:15:40Z</time>
      </trkpt>
      <trkpt lat="37.827190" lon="-122.292060">
        <ele>1.866</ele>
        <time>2018-12-27T16:16:00Z</time>
      </trkpt>
      <trkpt lat="37.827100" lon="-122.291860">
        <ele>3.011</ele>
        <time>2018-12-27T16:16:20Z</time>
      </trkpt>
      <trkpt lat="37.826990" lon="-122.291620">
        <ele>3.040</ele>
        <time>2018-12-27T16:16:40Z</time>
      </trkpt>
      <trkpt lat="37.826910" lon="-122.291440">
        <ele>2.924</ele>
        <time>2018-12-27T16:17:00Z</time>
      </trkpt>
      <trkpt lat="37.826820" lon="-122.291230">
        <ele>3.070</ele>
        <time>2018-12-27T16:17:20Z</time>
      </trkpt>
      <trkpt lat="37.826750" lon="-122.291050">
        <ele>3.597</ele>
        <time>2018-12-27T16:17:40Z</time>
      </trkpt>
      <trkpt lat="37.826740" lon="-122.291030">
        <ele>3.541</ele>
        <time>2018-12-27T16:18:00Z</time>
      </trkpt>
      <trkpt lat="37.826740" lon="-122.291020">
        <ele>3.556</ele>
        <time>2018-12-27T16:18:20Z</time>
      </trkpt>
      <trkpt lat="37.826730" lon="-122.290990">
        <ele>3.659</ele>
        <time>2018-12-27T16:18:40Z</time>
      </trkpt>
      <trkpt lat="37.826660" lon="-122.290800">
        <ele>4.214</ele>
        <time>2018-12-27T16:19:00Z</time>
      </trkpt>
      <trkpt lat="37.826580" lon="-122.290560">
        <ele>4.708</ele>
        <time>2018-12-27T16:19:20Z</time>
      </trkpt>
      <trkpt lat="37.826530" lon="-122.290380">
        <ele>4.768</ele>
        <time>2018-12-27T16:19:40Z</time>
      </trkpt>
      <trkpt lat="37.826470" lon="-122.290180">
        <ele>4.756</ele>
        <time>2018-12-27T16:20:00Z</time>
      </trkpt>
      <trkpt lat="37.826420" lon="-122.289920">
        <ele>4.111</ele>
        <time>2018-12-27T16:20:20Z</time>
      </trkpt>
      <trkpt lat="37.826410" lon="-122.289870">
        <ele>4.040</ele>
        <time>2018-12-27T16:20:40Z</time>
      </trkpt>
      <trkpt lat="37.826410" lon="-122.289860">
        <ele>4.094</ele>
        <time>2018-12-27T16:21:00Z</time>
      </trkpt>
      <trkpt lat="37.826410" lon="-122.289850">
        <ele>4.070</ele>
        <time>2018-12-27T16:21:20Z</time>
      </trkpt>
      <trkpt lat="37.826390" lon="-122.289720">
        <ele>3.997</ele>
        <time>2018-12-27T16:21:40Z</time>
      </trkpt>
      <trkpt lat="37.826380" lon="-122.289700">
        <ele>3.971</ele>
        <time>2018-12-27T16:22:00Z</time>
      </trkpt>
      <trkpt lat="37.826380" lon="-122.289690">
        <ele>3.993</ele>
        <time>2018-12-27T16:22:20Z</time>
      </trkpt>
      <trkpt lat="37.826360" lon="-122.289560">
        <ele>3.865</ele>
        <time>2018-12-27T16:22:40Z</time>
      </trkpt>
      <trkpt lat="37.826350" lon="-122.289460">
        <ele>3.821</ele>
        <time>2018-12-27T16:23:00Z</time>
      </trkpt>
      <trkpt lat="37.826340" lon="-122.289390">
        <ele>3.808</ele>
        <time>2018-12-27T16:23:20Z</time>
      </trkpt>
      <trkpt lat="37.826340" lon="-122.289340">
        <ele>3.822</ele>
        <time>2018-12-27T16:23:40Z</time>
      </trkpt>
      <trkpt lat="37.826340" lon="-122.289310">
        <ele>3.820</ele>
        <time>2018-12-27T16:24:00Z</time>
      </trkpt>
      <trkpt lat="37.826340" lon="-122.289280">
        <ele>3.755</ele>
        <time>2018-12-27T16:24:20Z</time>
      </trkpt>
      <trkpt lat="37.826340" lon="-122.289250">
        <ele>3.784</ele>
        <time>2018-12-27T16:24:40Z</time>
      </trkpt>
      <trkpt lat="37.826370" lon="-122.289160">
        <ele>3.648</ele>
        <time>2018-12-27T16:25:00Z</time>
      </trkpt>
      <trkpt lat="37.826366" lon="-122.289164">
        <ele>3.644</ele>
        <time>2018-12-27T16:25:20Z</time>
      </trkpt>
      <trkpt lat="37.826350" lon="-122.288930">
        <ele>3.531</ele>
        <time>2018-12-27T16:25:40Z</time>
      </trkpt>
      <trkpt lat="37.826350" lon="-122.288780">
        <ele>3.515</ele>
        <time>2018-12-27T16:26:00Z</time>
      </trkpt>
      <trkpt lat="37.826350" lon="-122.288650">
        <ele>3.599</ele>
        <time>2018-12-27T16:26:20Z</time>
      </trkpt>
      <trkpt lat="37.826350" lon="-122.288550">
        <ele>3.507</ele>
        <time>2018-12-27T16:26:40Z</time>
      </trkpt>
      <trkpt lat="37.826350" lon="-122.288450">
        <ele>3.627</ele>
        <time>2018-12-27T16:27:00Z</time>
      </trkpt>
      <trkpt lat="37.826360" lon="-122.288280">
        <ele>3.708</ele>
        <time>2018-12-27T16:27:20Z</time>
      </trkpt>
      <trkpt lat="37.826370" lon="-122.288060">
        <ele>3.992</ele>
        <time>2018-12-27T16:27:40Z</time>
      </trkpt>
      <trkpt lat="37.826400" lon="-122.287760">
        <ele>3.940</ele>
        <time>2018-12-27T16:28:00Z</time>
      </trkpt>
      <trkpt lat="37.826470" lon="-122.287330">
        <ele>4.475</ele>
        <time>2018-12-27T16:28:20Z</time>
      </trkpt>
      <trkpt lat="37.826540" lon="-122.286990">
        <ele>4.884</ele>
        <time>2018-12-27T16:28:40Z</time>
      </trkpt>
      <trkpt lat="37.826600" lon="-122.286670">
        <ele>4.778</ele>
        <time>2018-12-27T16:29:00Z</time>
      </trkpt>
      <trkpt lat="37.826720" lon="-122.286040">
        <ele>5.694</ele>
        <time>2018-12-27T16:29:20Z</time>
      </trkpt>
      <trkpt lat="37.826880" lon="-122.285180">
        <ele>6.171</ele>
        <time>2018-12-27T16:29:40Z</time>
      </trkpt>
      <trkpt lat="37.827010" lon="-122.284480">
        <ele>8.635</ele>
        <time>2018-12-27T16:30:00Z</time>
      </trkpt>
      <trkpt lat="37.827170" lon="-122.283640">
        <ele>12.083</ele>
        <time>2018-12-27T16:30:20Z</time>
      </trkpt>
      <trkpt lat="37.827210" lon="-122.283420">
        <ele>11.225</ele>
        <time>2018-12-27T16:30:40Z</time>
      </trkpt>
      <trkpt lat="37.827240" lon="-122.283250">
        <ele>12.117</ele>
        <time>2018-12-27T16:31:00Z</time>
      </trkpt>
      <trkpt lat="37.827280" lon="-122.282990">
        <ele>13.008</ele>
        <time>2018-12-27T16:31:20Z</time>
      </trkpt>
      <trkpt lat="37.827300" lon="-122.282830">
        <ele>13.441</ele>
        <time>2018-12-27T16:31:40Z</time>
      </trkpt>
      <trkpt lat="37.827310" lon="-122.282640">
        <ele>13.789</ele>
        <time>2018-12-27T16:32:00Z</time>
      </trkpt>
      <trkpt lat="37.827320" lon="-122.282480">
        <ele>14.054</ele>
        <time>2018-12-27T16:32:20Z</time>
      </trkpt>
      <trkpt lat="37.827320" lon="-122.282360">
        <ele>14.153</ele>
        <time>2018-12-27T16:32:40Z</time>
      </trkpt>
      <trkpt lat="37.827320" lon="-122.282230">
        <ele>14.297</ele>
        <time>2018-12-27T16:33:00Z</time>
      </trkpt>
      <trkpt lat="37.827320" lon="-122.282090">
        <ele>14.383</ele>
        <time>2018-12-27T16:33:20Z</time>
      </trkpt>
      <trkpt lat="37.827320" lon="-122.281950">
        <ele>14.570</ele>
        <time>2018-12-27T16:33:40Z</time>
      </trkpt>
      <trkpt lat="37.827310" lon="-122.281770">
        <ele>14.224</ele>
        <time>2018-12-27T16:34:00Z</time>
      </trkpt>
      <trkpt lat="37.827290" lon="-122.281600">
        <ele>12.958</ele>
        <time>2018-12-27T16:34:20Z</time>
      </trkpt>
      <trkpt lat="37.827280" lon="-122.281460">
        <ele>11.552</ele>
        <time>2018-12-27T16:34:40Z</time>
      </trkpt>
      <trkpt lat="37.827260" lon="-122.281320">
        <ele>9.817</ele>
        <time>2018-12-27T16:35:00Z</time>
      </trkpt>
      <trkpt lat="37.827250" lon="-122.281270">
        <ele>9.208</ele>
        <time>2018-12-27T16:35:20Z</time>
      </trkpt>
      <trkpt lat="37.827240" lon="-122.281150">
        <ele>8.948</ele>
        <time>2018-12-27T16:35:40Z</time>
      </trkpt>
      <trkpt lat="37.827210" lon="-122.281020">
        <ele>8.716</ele>
        <time>2018-12-27T16:36:00Z</time>
      </trkpt>
      <trkpt lat="37.827200" lon="-122.280930">
        <ele>8.771</ele>
        <time>2018-12-27T16:36:20Z</time>
      </trkpt>
      <trkpt lat="37.827190" lon="-122.280880">
        <ele>8.870</ele>
        <time>2018-12-27T16:36:40Z</time>
      </trkpt>
      <trkpt lat="37.827160" lon="-122.280750">
        <ele>9.014</ele>
        <time>2018-12-27T16:37:00Z</time>
      </trkpt>
      <trkpt lat="37.827120" lon="-122.280580">
        <ele>9.270</ele>
        <time>2018-12-27T16:37:20Z</time>
      </trkpt>
      <trkpt lat="37.826950" lon="-122.279860">
        <ele>9.617</ele>
        <time>2018-12-27T16:37:40Z</time>
      </trkpt>
      <trkpt lat="37.826950" lon="-122.279850">
        <ele>9.611</ele>
        <time>2018-12-27T16:38:00Z</time>
      </trkpt>
      <trkpt lat="37.826640" lon="-122.278520">
        <ele>10.625</ele>
        <time>2018-12-27T16:38:20Z</time>
      </trkpt>
      <trkpt lat="37.826600" lon="-122.278390">
        <ele>10.826</ele>
        <time>2018-12-27T16:38:40Z</time>
      </trkpt>
      <trkpt lat="37.826260" lon="-122.276940">
        <ele>17.708</ele>
        <time>2018-12-27T16:39:00Z</time>
      </trkpt>
      <trkpt lat="37.826170" lon="-122.276530">
        <ele>16.508</ele>
        <time>2018-12-27T16:39:20Z</time>
      </trkpt>
      <trkpt lat="37.826080" lon="-122.276150">
        <ele>18.515</ele>
        <time>2018-12-27T16:39:40Z</time>
      </trkpt>
      <trkpt lat="37.825970" lon="-122.275720">
        <ele>18.953</ele>
        <time>2018-12-27T16:40:00Z</time>
      </trkpt>
      <trkpt lat="37.825960" lon="-122.275640">
        <ele>18.828</ele>
        <time>2018-12-27T16:40:20Z</time>
      </trkpt>
      <trkpt lat="37.825830" lon="-122.275140">
        <ele>12.817</ele>
        <time>2018-12-27T16:40:40Z</time>
      </trkpt>
      <trkpt lat="37.825800" lon="-122.275020">
        <ele>15.971</ele>
        <time>2018-12-27T16:41:00Z</time>
      </trkpt>
      <trkpt lat="37.825530" lon="-122.273910">
        <ele>21.017</ele>
        <time>2018-12-27T16:41:20Z</time>
      </trkpt>
      <trkpt lat="37.825320" lon="-122.272960">
        <ele>22.584</ele>
        <time>2018-12-27T16:41:40Z</time>
      </trkpt>
      <trkpt lat="37.825250" lon="-122.272680">
        <ele>22.658</ele>
        <time>2018-12-27T16:42:00Z</time>
      </trkpt>
      <trkpt lat="37.825220" lon="-122.272550">
        <ele>21.353</ele>
        <time>2018-12-27T16:42:20Z</time>
      </trkpt>
      <trkpt lat="37.825150" lon="-122.272270">
        <ele>16.804</ele>
        <time>2018-12-27T16:42:40Z</time>
      </trkpt>
      <trkpt lat="37.824650" lon="-122.270150">
        <ele>24.514</ele>
        <time>2018-12-27T16:43:00Z</time>
      </trkpt>
      <trkpt lat="37.824560" lon="-122.269790">
        <ele>19.308</ele>
        <time>2018-12-27T16:43:20Z</time>
      </trkpt>
      <trkpt lat="37.824550" lon="-122.269740">
        <ele>19.138</ele>
        <time>2018-12-27T16:43:40Z</time>
      </trkpt>
      <trkpt lat="37.824550" lon="-122.269730">
        <ele>19.036</ele>
        <time>2018-12-27T16:44:00Z</time>
      </trkpt>
      <trkpt lat="37.824550" lon="-122.269720">
        <ele>19.081</ele>
        <time>2018-12-27T16:44:20Z</time>
      </trkpt>
      <trkpt lat="37.824520" lon="-122.269600">
        <ele>18.880</ele>
        <time>2018-12-27T16:44:40Z</time>
      </trkpt>
      <trkpt lat="37.824500" lon="-122.269530">
        <ele>20.194</ele>
        <time>2018-12-27T16:45:00Z</time>
      </trkpt>
      <trkpt lat="37.824470" lon="-122.269400">
        <ele>23.070</ele>
        <time>2018-12-27T16:45:20Z</time>
      </trkpt>
      <trkpt lat="37.824460" lon="-122.269370">
        <ele>23.727</ele>
        <time>2018-12-27T16:45:40Z</time>
      </trkpt>
      <trkpt lat="37.824460" lon="-122.269350">
        <ele>24.171</ele>
        <time>2018-12-27T16:46:00Z</time>
      </trkpt>
      <trkpt lat="37.824390" lon="-122.269030">
        <ele>24.946</ele>
        <time>2018-12-27T16:46:20Z</time>
      </trkpt>
      <trkpt lat="37.824380" lon="-122.269030">
        <ele>24.988</ele>
        <time>2018-12-27T16:46:40Z</time>
      </trkpt>
      <trkpt lat="37.824380" lon="-122.269010">
        <ele>24.816</ele>
        <time>2018-12-27T16:47:00Z</time>
      </trkpt>
      <trkpt lat="37.824300" lon="-122.268680">
        <ele>22.008</ele>
        <time>2018-12-27T16:47:20Z</time>
      </trkpt>
      <trkpt lat="37.824280" lon="-122.268590">
        <ele>19.897</ele>
        <time>2018-12-27T16:47:40Z</time>
      </trkpt>
      <trkpt lat="37.824280" lon="-122.268580">
        <ele>19.625</ele>
        <time>2018-12-27T16:48:00Z</time>
      </trkpt>
      <trkpt lat="37.824240" lon="-122.268410">
        <ele>17.320</ele>
        <time>2018-12-27T16:48:20Z</time>
      </trkpt>
      <trkpt lat="37.824200" lon="-122.268250">
        <ele>17.229</ele>
        <time>2018-12-27T16:48:40Z</time>
      </trkpt>
      <trkpt lat="37.824190" lon="-122.268210">
        <ele>17.263</ele>
        <time>2018-12-27T16:49:00Z</time>
      </trkpt>
      <trkpt lat="37.824170" lon="-122.268130">
        <ele>17.349</ele>
        <time>2018-12-27T16:49:20Z</time>
      </trkpt>
      <trkpt lat="37.824160" lon="-122.268050">
        <ele>17.596</ele>
        <time>2018-12-27T16:49:40Z</time>
      </trkpt>
      <trkpt lat="37.824150" lon="-122.268050">
        <ele>17.510</ele>
        <time>2018-12-27T16:50:00Z</time>
      </trkpt>
      <trkpt lat="37.824150" lon="-122.268040">
        <ele>17.537</ele>
        <time>2018-12-27T16:50:20Z</time>
      </trkpt>
      <trkpt lat="37.824130" lon="-122.267940">
        <ele>17.849</ele>
        <time>2018-12-27T16:50:40Z</time>
      </trkpt>
      <trkpt lat="37.824100" lon="-122.267800">
        <ele>21.013</ele>
        <time>2018-12-27T16:51:00Z</time>
      </trkpt>
      <trkpt lat="37.824020" lon="-122.267460">
        <ele>25.208</ele>
        <time>2018-12-27T16:51:20Z</time>
      </trkpt>
      <trkpt lat="37.824010" lon="-122.267430">
        <ele>25.056</ele>
        <time>2018-12-27T16:51:40Z</time>
      </trkpt>
      <trkpt lat="37.823750" lon="-122.266310">
        <ele>25.764</ele>
        <time>2018-12-27T16:52:00Z</time>
      </trkpt>
      <trkpt lat="37.823710" lon="-122.266140">
        <ele>22.299</ele>
        <time>2018-12-27T16:52:20Z</time>
      </trkpt>
      <trkpt lat="37.823690" lon="-122.266080">
        <ele>20.558</ele>
        <time>2018-12-27T16:52:40Z</time>
      </trkpt>
      <trkpt lat="37.823680" lon="-122.266030">
        <ele>19.382</ele>
        <time>2018-12-27T16:53:00Z</time>
      </trkpt>
      <trkpt lat="37.823660" lon="-122.265940">
        <ele>18.518</ele>
        <time>2018-12-27T16:53:20Z</time>
      </trkpt>
      <trkpt lat="37.823660" lon="-122.265930">
        <ele>18.695</ele>
        <time>2018-12-27T16:53:40Z</time>
      </trkpt>
      <trkpt lat="37.823640" lon="-122.265850">
        <ele>19.739</ele>
        <time>2018-12-27T16:54:00Z</time>
      </trkpt>
      <trkpt lat="37.823600" lon="-122.265680">
        <ele>22.412</ele>
        <time>2018-12-27T16:54:20Z</time>
      </trkpt>
      <trkpt lat="37.823570" lon="-122.265570">
        <ele>24.032</ele>
        <time>2018-12-27T16:54:40Z</time>
      </trkpt>
      <trkpt lat="37.823470" lon="-122.265170">
        <ele>25.905</ele>
        <time>2018-12-27T16:55:00Z</time>
      </trkpt>
      <trkpt lat="37.823320" lon="-122.264440">
        <ele>26.408</ele>
        <time>2018-12-27T16:55:20Z</time>
      </trkpt>
      <trkpt lat="37.823170" lon="-122.263720">
        <ele>25.814</ele>
        <time>2018-12-27T16:55:40Z</time>
      </trkpt>
      <trkpt lat="37.823040" lon="-122.263060">
        <ele>26.052</ele>
        <time>2018-12-27T16:56:00Z</time>
      </trkpt>
      <trkpt lat="37.822930" lon="-122.262530">
        <ele>26.567</ele>
        <time>2018-12-27T16:56:20Z</time>
      </trkpt>
      <trkpt lat="37.822890" lon="-122.262360">
        <ele>26.656</ele>
        <time>2018-12-27T16:56:40Z</time>
      </trkpt>
      <trkpt lat="37.822830" lon="-122.262180">
        <ele>22.520</ele>
        <time>2018-12-27T16:57:00Z</time>
      </trkpt>
      <trkpt lat="37.822790" lon="-122.261980">
        <ele>21.776</ele>
        <time>2018-12-27T16:57:20Z</time>
      </trkpt>
      <trkpt lat="37.822780" lon="-122.261970">
        <ele>21.873</ele>
        <time>2018-12-27T16:57:40Z</time>
      </trkpt>
      <trkpt lat="37.822780" lon="-122.261960">
        <ele>21.997</ele>
        <time>2018-12-27T16:58:00Z</time>
      </trkpt>
      <trkpt lat="37.822750" lon="-122.261800">
        <ele>23.541</ele>
        <time>2018-12-27T16:58:20Z</time>
      </trkpt>
      <trkpt lat="37.822660" lon="-122.261450">
        <ele>27.081</ele>
        <time>2018-12-27T16:58:40Z</time>
      </trkpt>
      <trkpt lat="37.822530" lon="-122.260970">
        <ele>25.109</ele>
        <time>2018-12-27T16:59:00Z</time>
      </trkpt>
      <trkpt lat="37.822350" lon="-122.260420">
        <ele>26.808</ele>
        <time>2018-12-27T16:59:20Z</time>
      </trkpt>
      <trkpt lat="37.822240" lon="-122.260090">
        <ele>23.467</ele>
        <time>2018-12-27T16:59:40Z</time>
      </trkpt>
      <trkpt lat="37.822190" lon="-122.259970">
        <ele>21.375</ele>
        <time>2018-12-27T17:00:00Z</time>
      </trkpt>
      <trkpt lat="37.822190" lon="-122.259960">
        <ele>21.250</ele>
        <time>2018-12-27T17:00:20Z</time>
      </trkpt>
      <trkpt lat="37.822180" lon="-122.259930">
        <ele>20.939</ele>
        <time>2018-12-27T17:00:40Z</time>
      </trkpt>
      <trkpt lat="37.821980" lon="-122.259420">
        <ele>19.683</ele>
        <time>2018-12-27T17:01:00Z</time>
      </trkpt>
      <trkpt lat="37.821880" lon="-122.259160">
        <ele>19.429</ele>
        <time>2018-12-27T17:01:20Z</time>
      </trkpt>
      <trkpt lat="37.821870" lon="-122.259130">
        <ele>19.466</ele>
        <time>2018-12-27T17:01:40Z</time>
      </trkpt>
      <trkpt lat="37.821730" lon="-122.258830">
        <ele>19.330</ele>
        <time>2018-12-27T17:02:00Z</time>
      </trkpt>
      <trkpt lat="37.821600" lon="-122.258520">
        <ele>19.381</ele>
        <time>2018-12-27T17:02:20Z</time>
      </trkpt>
      <trkpt lat="37.821500" lon="-122.258290">
        <ele>19.161</ele>
        <time>2018-12-27T17:02:40Z</time>
      </trkpt>
      <trkpt lat="37.821410" lon="-122.258100">
        <ele>18.517</ele>
        <time>2018-12-27T17:03:00Z</time>
      </trkpt>
      <trkpt lat="37.821340" lon="-122.257920">
        <ele>17.408</ele>
        <time>2018-12-27T17:03:20Z</time>
      </trkpt>
      <trkpt lat="37.821200" lon="-122.257640">
        <ele>14.811</ele>
        <time>2018-12-27T17:03:40Z</time>
      </trkpt>
      <trkpt lat="37.821140" lon="-122.257500">
        <ele>15.399</ele>
        <time>2018-12-27T17:04:00Z</time>
      </trkpt>
      <trkpt lat="37.821040" lon="-122.257320">
        <ele>17.224</ele>
        <time>2018-12-27T17:04:20Z</time>
      </trkpt>
      <trkpt lat="37.821000" lon="-122.257250">
        <ele>18.713</ele>
        <time>2018-12-27T17:04:40Z</time>
      </trkpt>
      <trkpt lat="37.820970" lon="-122.257200">
        <ele>19.947</ele>
        <time>2018-12-27T17:05:00Z</time>
      </trkpt>
      <trkpt lat="37.820820" lon="-122.256920">
        <ele>27.373</ele>
        <time>2018-12-27T17:05:20Z</time>
      </trkpt>
      <trkpt lat="37.820670" lon="-122.256630">
        <ele>29.390</ele>
        <time>2018-12-27T17:05:40Z</time>
      </trkpt>
      <trkpt lat="37.820500" lon="-122.256340">
        <ele>29.764</ele>
        <time>2018-12-27T17:06:00Z</time>
      </trkpt>
      <trkpt lat="37.820310" lon="-122.256000">
        <ele>29.973</ele>
        <time>2018-12-27T17:06:20Z</time>
      </trkpt>
      <trkpt lat="37.820040" lon="-122.255550">
        <ele>30.685</ele>
        <time>2018-12-27T17:06:40Z</time>
      </trkpt>
      <trkpt lat="37.819960" lon="-122.255430">
        <ele>31.213</ele>
        <time>2018-12-27T17:07:00Z</time>
      </trkpt>
      <trkpt lat="37.819750" lon="-122.255090">
        <ele>31.008</ele>
        <time>2018-12-27T17:07:20Z</time>
      </trkpt>
      <trkpt lat="37.819710" lon="-122.255020">
        <ele>31.270</ele>
        <time>2018-12-27T17:07:40Z</time>
      </trkpt>
      <trkpt lat="37.819600" lon="-122.254850">
        <ele>32.188</ele>
        <time>2018-12-27T17:08:00Z</time>
      </trkpt>
      <trkpt lat="37.819510" lon="-122.254700">
        <ele>25.213</ele>
        <time>2018-12-27T17:08:20Z</time>
      </trkpt>
      <trkpt lat="37.819470" lon="-122.254630">
        <ele>22.952</ele>
        <time>2018-12-27T17:08:40Z</time>
      </trkpt>
      <trkpt lat="37.819460" lon="-122.254620">
        <ele>22.646</ele>
        <time>2018-12-27T17:09:00Z</time>
      </trkpt>
      <trkpt lat="37.819410" lon="-122.254550">
        <ele>21.812</ele>
        <time>2018-12-27T17:09:20Z</time>
      </trkpt>
      <trkpt lat="37.819370" lon="-122.254490">
        <ele>21.749</ele>
        <time>2018-12-27T17:09:40Z</time>
      </trkpt>
      <trkpt lat="37.819200" lon="-122.254250">
        <ele>21.533</ele>
        <time>2018-12-27T17:10:00Z</time>
      </trkpt>
      <trkpt lat="37.819190" lon="-122.254230">
        <ele>21.693</ele>
        <time>2018-12-27T17:10:20Z</time>
      </trkpt>
      <trkpt lat="37.819110" lon="-122.254110">
        <ele>22.265</ele>
        <time>2018-12-27T17:10:40Z</time>
      </trkpt>
      <trkpt lat="37.819100" lon="-122.254090">
        <ele>22.421</ele>
        <time>2018-12-27T17:11:00Z</time>
      </trkpt>
      <trkpt lat="37.819030" lon="-122.254000">
        <ele>23.308</ele>
        <time>2018-12-27T17:11:20Z</time>
      </trkpt>
      <trkpt lat="37.818920" lon="-122.253850">
        <ele>27.582</ele>
        <time>2018-12-27T17:11:40Z</time>
      </trkpt>
      <trkpt lat="37.818920" lon="-122.253840">
        <ele>27.650</ele>
        <time>2018-12-27T17:12:00Z</time>
      </trkpt>
      <trkpt lat="37.818910" lon="-122.253840">
        <ele>27.915</ele>
        <time>2018-12-27T17:12:20Z</time>
      </trkpt>
      <trkpt lat="37.818870" lon="-122.253790">
        <ele>29.334</ele>
        <time>2018-12-27T17:12:40Z</time>
      </trkpt>
      <trkpt lat="37.818680" lon="-122.253550">
        <ele>34.468</ele>
        <time>2018-12-27T17:13:00Z</time>
      </trkpt>
      <trkpt lat="37.818560" lon="-122.253420">
        <ele>35.184</ele>
        <time>2018-12-27T17:13:20Z</time>
      </trkpt>
      <trkpt lat="37.818400" lon="-122.253240">
        <ele>35.341</ele>
        <time>2018-12-27T17:13:40Z</time>
      </trkpt>
      <trkpt lat="37.818180" lon="-122.253010">
        <ele>35.465</ele>
        <time>2018-12-27T17:14:00Z</time>
      </trkpt>
      <trkpt lat="37.818020" lon="-122.252870">
        <ele>35.678</ele>
        <time>2018-12-27T17:14:20Z</time>
      </trkpt>
      <trkpt lat="37.817900" lon="-122.252760">
        <ele>35.633</ele>
        <time>2018-12-27T17:14:40Z</time>
      </trkpt>
      <trkpt lat="37.817820" lon="-122.252690">
        <ele>35.626</ele>
        <time>2018-12-27T17:15:00Z</time>
      </trkpt>
      <trkpt lat="37.817770" lon="-122.252650">
        <ele>35.508</ele>
        <time>2018-12-27T17:15:20Z</time>
      </trkpt>
      <trkpt lat="37.817680" lon="-122.252570">
        <ele>35.550</ele>
        <time>2018-12-27T17:15:40Z</time>
      </trkpt>
      <trkpt lat="37.817590" lon="-122.252500">
        <ele>35.518</ele>
        <time>2018-12-27T17:16:00Z</time>
      </trkpt>
      <trkpt lat="37.817510" lon="-122.252440">
        <ele>35.483</ele>
        <time>2018-12-27T17:16:20Z</time>
      </trkpt>
      <trkpt lat="37.817410" lon="-122.252360">
        <ele>35.342</ele>
        <time>2018-12-27T17:16:40Z</time>
      </trkpt>
      <trkpt lat="37.817290" lon="-122.252280">
        <ele>35.196</ele>
        <time>2018-12-27T17:17:00Z</time>
      </trkpt>
      <trkpt lat="37.817160" lon="-122.252190">
        <ele>35.052</ele>
        <time>2018-12-27T17:17:20Z</time>
      </trkpt>
      <trkpt lat="37.817050" lon="-122.252120">
        <ele>34.989</ele>
        <time>2018-12-27T17:17:40Z</time>
      </trkpt>
      <trkpt lat="37.816920" lon="-122.252040">
        <ele>34.613</ele>
        <time>2018-12-27T17:18:00Z</time>
      </trkpt>
      <trkpt lat="37.816760" lon="-122.251950">
        <ele>34.523</ele>
        <time>2018-12-27T17:18:20Z</time>
      </trkpt>
      <trkpt lat="37.816630" lon="-122.251880">
        <ele>34.383</ele>
        <time>2018-12-27T17:18:40Z</time>
      </trkpt>
      <trkpt lat="37.816480" lon="-122.251800">
        <ele>33.611</ele>
        <time>2018-12-27T17:19:00Z</time>
      </trkpt>
      <trkpt lat="37.816380" lon="-122.251750">
        <ele>33.308</ele>
        <time>2018-12-27T17:19:20Z</time>
      </trkpt>
      <trkpt lat="37.816290" lon="-122.251710">
        <ele>33.045</ele>
        <time>2018-12-27T17:19:40Z</time>
      </trkpt>
      <trkpt lat="37.816260" lon="-122.251700">
        <ele>32.943</ele>
        <time>2018-12-27T17:20:00Z</time>
      </trkpt>
      <trkpt lat="37.816090" lon="-122.251630">
        <ele>33.048</ele>
        <time>2018-12-27T17:20:20Z</time>
      </trkpt>
      <trkpt lat="37.815920" lon="-122.251560">
        <ele>32.647</ele>
        <time>2018-12-27T17:20:40Z</time>
      </trkpt>
      <trkpt lat="37.815790" lon="-122.251520">
        <ele>32.051</ele>
        <time>2018-12-27T17:21:00Z</time>
      </trkpt>
      <trkpt lat="37.815670" lon="-122.251480">
        <ele>31.727</ele>
        <time>2018-12-27T17:21:20Z</time>
      </trkpt>
      <trkpt lat="37.815480" lon="-122.251430">
        <ele>31.074</ele>
        <time>2018-12-27T17:21:40Z</time>
      </trkpt>
      <trkpt lat="37.815430" lon="-122.251410">
        <ele>30.888</ele>
        <time>2018-12-27T17:22:00Z</time>
      </trkpt>
      <trkpt lat="37.815320" lon="-122.251390">
        <ele>30.539</ele>
        <time>2018-12-27T17:22:20Z</time>
      </trkpt>
      <trkpt lat="37.814130" lon="-122.251070">
        <ele>25.701</ele>
        <time>2018-12-27T17:22:40Z</time>
      </trkpt>
      <trkpt lat="37.813770" lon="-122.250970">
        <ele>23.521</ele>
        <time>2018-12-27T17:23:00Z</time>
      </trkpt>
      <trkpt lat="37.813480" lon="-122.250880">
        <ele>22.208</ele>
        <time>2018-12-27T17:23:20Z</time>
      </trkpt>
      <trkpt lat="37.813370" lon="-122.250850">
        <ele>21.726</ele>
        <time>2018-12-27T17:23:40Z</time>
      </trkpt>
      <trkpt lat="37.813230" lon="-122.250810">
        <ele>21.244</ele>
        <time>2018-12-27T17:24:00Z</time>
      </trkpt>
      <trkpt lat="37.812940" lon="-122.250730">
        <ele>20.159</ele>
        <time>2018-12-27T17:24:20Z</time>
      </trkpt>
      <trkpt lat="37.812800" lon="-122.250680">
        <ele>19.688</ele>
        <time>2018-12-27T17:24:40Z</time>
      </trkpt>
      <trkpt lat="37.812630" lon="-122.250640">
        <ele>18.982</ele>
        <time>2018-12-27T17:25:00Z</time>
      </trkpt>
      <trkpt lat="37.812320" lon="-122.250550">
        <ele>17.898</ele>
        <time>2018-12-27T17:25:20Z</time>
      </trkpt>
      <trkpt lat="37.812200" lon="-122.250510">
        <ele>17.235</ele>
        <time>2018-12-27T17:25:40Z</time>
      </trkpt>
      <trkpt lat="37.812030" lon="-122.250450">
        <ele>16.779</ele>
        <time>2018-12-27T17:26:00Z</time>
      </trkpt>
      <trkpt lat="37.811820" lon="-122.250350">
        <ele>16.066</ele>
        <time>2018-12-27T17:26:20Z</time>
      </trkpt>
      <trkpt lat="37.811700" lon="-122.250280">
        <ele>15.429</ele>
        <time>2018-12-27T17:26:40Z</time>
      </trkpt>
      <trkpt lat="37.811610" lon="-122.250220">
        <ele>15.021</ele>
        <time>2018-12-27T17:27:00Z</time>
      </trkpt>
      <trkpt lat="37.811500" lon="-122.250140">
        <ele>14.508</ele>
        <time>2018-12-27T17:27:20Z</time>
      </trkpt>
      <trkpt lat="37.811320" lon="-122.250000">
        <ele>13.749</ele>
        <time>2018-12-27T17:27:40Z</time>
      </trkpt>
      <trkpt lat="37.811100" lon="-122.249800">
        <ele>11.947</ele>
        <time>2018-12-27T17:28:00Z</time>
      </trkpt>
      <trkpt lat="37.811050" lon="-122.249750">
        <ele>11.562</ele>
        <time>2018-12-27T17:28:20Z</time>
      </trkpt>
      <trkpt lat="37.810930" lon="-122.249620">
        <ele>10.811</ele>
        <time>2018-12-27T17:28:40Z</time>
      </trkpt>
      <trkpt lat="37.810900" lon="-122.249590">
        <ele>10.425</ele>
        <time>2018-12-27T17:29:00Z</time>
      </trkpt>
      <trkpt lat="37.810770" lon="-122.249420">
        <ele>8.341</ele>
        <time>2018-12-27T17:29:20Z</time>
      </trkpt>
      <trkpt lat="37.810690" lon="-122.249310">
        <ele>7.268</ele>
        <time>2018-12-27T17:29:40Z</time>
      </trkpt>
      <trkpt lat="37.810590" lon="-122.249150">
        <ele>6.242</ele>
        <time>2018-12-27T17:30:00Z</time>
      </trkpt>
      <trkpt lat="37.810540" lon="-122.249050">
        <ele>5.821</ele>
        <time>2018-12-27T17:30:20Z</time>
      </trkpt>
      <trkpt lat="37.810520" lon="-122.249000">
        <ele>5.541</ele>
        <time>2018-12-27T17:30:40Z</time>
      </trkpt>
      <trkpt lat="37.810490" lon="-122.248950">
        <ele>5.005</ele>
        <time>2018-12-27T17:31:00Z</time>
      </trkpt>
      <trkpt lat="37.810430" lon="-122.248840">
        <ele>4.108</ele>
        <time>2018-12-27T17:31:20Z</time>
      </trkpt>
      <trkpt lat="37.810380" lon="-122.248740">
        <ele>3.615</ele>
        <time>2018-12-27T17:31:40Z</time>
      </trkpt>
      <trkpt lat="37.810370" lon="-122.248710">
        <ele>3.643</ele>
        <time>2018-12-27T17:32:00Z</time>
      </trkpt>
      <trkpt lat="37.810340" lon="-122.248650">
        <ele>3.668</ele>
        <time>2018-12-27T17:32:20Z</time>
      </trkpt>
      <trkpt lat="37.810320" lon="-122.248590">
        <ele>3.577</ele>
        <time>2018-12-27T17:32:40Z</time>
      </trkpt>
      <trkpt lat="37.810310" lon="-122.248580">
        <ele>3.521</ele>
        <time>2018-12-27T17:33:00Z</time>
      </trkpt>
      <trkpt lat="37.810310" lon="-122.248570">
        <ele>3.537</ele>
        <time>2018-12-27T17:33:20Z</time>
      </trkpt>
      <trkpt lat="37.810250" lon="-122.248440">
        <ele>3.554</ele>
        <time>2018-12-27T17:33:40Z</time>
      </trkpt>
      <trkpt lat="37.810170" lon="-122.248250">
        <ele>3.678</ele>
        <time>2018-12-27T17:34:00Z</time>
      </trkpt>
      <trkpt lat="37.810130" lon="-122.248130">
        <ele>3.722</ele>
        <time>2018-12-27T17:34:20Z</time>
      </trkpt>
      <trkpt lat="37.810070" lon="-122.247960">
        <ele>3.862</ele>
        <time>2018-12-27T17:34:40Z</time>
      </trkpt>
      <trkpt lat="37.810000" lon="-122.247690">
        <ele>4.008</ele>
        <time>2018-12-27T17:35:00Z</time>
      </trkpt>
      <trkpt lat="37.809950" lon="-122.247510">
        <ele>4.008</ele>
        <time>2018-12-27T17:35:20Z</time>
      </trkpt>
      <trkpt lat="37.809820" lon="-122.247070">
        <ele>3.875</ele>
        <time>2018-12-27T17:35:40Z</time>
      </trkpt>
      <trkpt lat="37.809720" lon="-122.246730">
        <ele>4.043</ele>
        <time>2018-12-27T17:36:00Z</time>
      </trkpt>
      <trkpt lat="37.809720" lon="-122.246710">
        <ele>4.168</ele>
        <time>2018-12-27T17:36:20Z</time>
      </trkpt>
      <trkpt lat="37.809670" lon="-122.246550">
        <ele>5.287</ele>
        <time>2018-12-27T17:36:40Z</time>
      </trkpt>
      <trkpt lat="37.809670" lon="-122.246530">
        <ele>5.321</ele>
        <time>2018-12-27T17:37:00Z</time>
      </trkpt>
      <trkpt lat="37.809630" lon="-122.246390">
        <ele>7.417</ele>
        <time>2018-12-27T17:37:20Z</time>
      </trkpt>
      <trkpt lat="37.809470" lon="-122.245830">
        <ele>9.844</ele>
        <time>2018-12-27T17:37:40Z</time>
      </trkpt>
      <trkpt lat="37.809170" lon="-122.244760">
        <ele>11.338</ele>
        <time>2018-12-27T17:38:00Z</time>
      </trkpt>
      <trkpt lat="37.808730" lon="-122.243210">
        <ele>17.771</ele>
        <time>2018-12-27T17:38:20Z</time>
      </trkpt>
      <trkpt lat="37.808420" lon="-122.242190">
        <ele>21.041</ele>
        <time>2018-12-27T17:38:40Z</time>
      </trkpt>
      <trkpt lat="37.808370" lon="-122.242040">
        <ele>21.115</ele>
        <time>2018-12-27T17:39:00Z</time>
      </trkpt>
      <trkpt lat="37.808320" lon="-122.241900">
        <ele>21.208</ele>
        <time>2018-12-27T17:39:20Z</time>
      </trkpt>
      <trkpt lat="37.808310" lon="-122.241860">
        <ele>21.220</ele>
        <time>2018-12-27T17:39:40Z</time>
      </trkpt>
      <trkpt lat="37.808220" lon="-122.241600">
        <ele>23.118</ele>
        <time>2018-12-27T17:40:00Z</time>
      </trkpt>
      <trkpt lat="37.808080" lon="-122.241250">
        <ele>23.683</ele>
        <time>2018-12-27T17:40:20Z</time>
      </trkpt>
      <trkpt lat="37.807980" lon="-122.240990">
        <ele>25.452</ele>
        <time>2018-12-27T17:40:40Z</time>
      </trkpt>
      <trkpt lat="37.807850" lon="-122.240700">
        <ele>28.176</ele>
        <time>2018-12-27T17:41:00Z</time>
      </trkpt>
      <trkpt lat="37.807720" lon="-122.240370">
        <ele>27.662</ele>
        <time>2018-12-27T17:41:20Z</time>
      </trkpt>
      <trkpt lat="37.806380" lon="-122.237510">
        <ele>39.929</ele>
        <time>2018-12-27T17:41:40Z</time>
      </trkpt>
      <trkpt lat="37.806350" lon="-122.237440">
        <ele>39.963</ele>
        <time>2018-12-27T17:42:00Z</time>
      </trkpt>
      <trkpt lat="37.806310" lon="-122.237360">
        <ele>40.087</ele>
        <time>2018-12-27T17:42:20Z</time>
      </trkpt>
      <trkpt lat="37.806270" lon="-122.237280">
        <ele>40.942</ele>
        <time>2018-12-27T17:42:40Z</time>
      </trkpt>
      <trkpt lat="37.806220" lon="-122.237170">
        <ele>42.226</ele>
        <time>2018-12-27T17:43:00Z</time>
      </trkpt>
      <trkpt lat="37.806190" lon="-122.237100">
        <ele>42.608</ele>
        <time>2018-12-27T17:43:20Z</time>
      </trkpt>
      <trkpt lat="37.806100" lon="-122.236920">
        <ele>42.341</ele>
        <time>2018-12-27T17:43:40Z</time>
      </trkpt>
      <trkpt lat="37.806030" lon="-122.236780">
        <ele>42.549</ele>
        <time>2018-12-27T17:44:00Z</time>
      </trkpt>
      <trkpt lat="37.805940" lon="-122.236570">
        <ele>44.334</ele>
        <time>2018-12-27T17:44:20Z</time>
      </trkpt>
      <trkpt lat="37.805790" lon="-122.236250">
        <ele>43.983</ele>
        <time>2018-12-27T17:44:40Z</time>
      </trkpt>
      <trkpt lat="37.805340" lon="-122.235340">
        <ele>47.477</ele>
        <time>2018-12-27T17:45:00Z</time>
      </trkpt>
      <trkpt lat="37.805180" lon="-122.235030">
        <ele>48.693</ele>
        <time>2018-12-27T17:45:20Z</time>
      </trkpt>
      <trkpt lat="37.805040" lon="-122.234790">
        <ele>49.750</ele>
        <time>2018-12-27T17:45:40Z</time>
      </trkpt>
      <trkpt lat="37.804960" lon="-122.234650">
        <ele>49.614</ele>
        <time>2018-12-27T17:46:00Z</time>
      </trkpt>
      <trkpt lat="37.804800" lon="-122.234400">
        <ele>49.458</ele>
        <time>2018-12-27T17:46:20Z</time>
      </trkpt>
      <trkpt lat="37.804620" lon="-122.234120">
        <ele>49.852</ele>
        <time>2018-12-27T17:46:40Z</time>
      </trkpt>
      <trkpt lat="37.804440" lon="-122.233860">
        <ele>48.617</ele>
        <time>2018-12-27T17:47:00Z</time>
      </trkpt>
      <trkpt lat="37.804350" lon="-122.233740">
        <ele>48.308</ele>
        <time>2018-12-27T17:47:20Z</time>
      </trkpt>
      <trkpt lat="37.804300" lon="-122.233670">
        <ele>46.878</ele>
        <time>2018-12-27T17:47:40Z</time>
      </trkpt>
      <trkpt lat="37.804200" lon="-122.233510">
        <ele>44.916</ele>
        <time>2018-12-27T17:48:00Z</time>
      </trkpt>
      <trkpt lat="37.804190" lon="-122.233510">
        <ele>44.981</ele>
        <time>2018-12-27T17:48:20Z</time>
      </trkpt>
      <trkpt lat="37.804090" lon="-122.233350">
        <ele>46.940</ele>
        <time>2018-12-27T17:48:40Z</time>
      </trkpt>
      <trkpt lat="37.804040" lon="-122.233280">
        <ele>48.714</ele>
        <time>2018-12-27T17:49:00Z</time>
      </trkpt>
      <trkpt lat="37.803950" lon="-122.233150">
        <ele>49.950</ele>
        <time>2018-12-27T17:49:20Z</time>
      </trkpt>
      <trkpt lat="37.803870" lon="-122.233050">
        <ele>49.897</ele>
        <time>2018-12-27T17:49:40Z</time>
      </trkpt>
      <trkpt lat="37.803730" lon="-122.232850">
        <ele>50.391</ele>
        <time>2018-12-27T17:50:00Z</time>
      </trkpt>
      <trkpt lat="37.803480" lon="-122.232560">
        <ele>49.723</ele>
        <time>2018-12-27T17:50:20Z</time>
      </trkpt>
      <trkpt lat="37.803030" lon="-122.231980">
        <ele>49.483</ele>
        <time>2018-12-27T17:50:40Z</time>
      </trkpt>
      <trkpt lat="37.802780" lon="-122.231670">
        <ele>49.411</ele>
        <time>2018-12-27T17:51:00Z</time>
      </trkpt>
      <trkpt lat="37.802620" lon="-122.231460">
        <ele>48.508</ele>
        <time>2018-12-27T17:51:20Z</time>
      </trkpt>
      <trkpt lat="37.802530" lon="-122.231350">
        <ele>49.285</ele>
        <time>2018-12-27T17:51:40Z</time>
      </trkpt>
      <trkpt lat="37.802490" lon="-122.231300">
        <ele>49.013</ele>
        <time>2018-12-27T17:52:00Z</time>
      </trkpt>
      <trkpt lat="37.802240" lon="-122.230980">
        <ele>49.468</ele>
        <time>2018-12-27T17:52:20Z</time>
      </trkpt>
      <trkpt lat="37.802000" lon="-122.230670">
        <ele>50.837</ele>
        <time>2018-12-27T17:52:40Z</time>
      </trkpt>
      <trkpt lat="37.801850" lon="-122.230490">
        <ele>51.791</ele>
        <time>2018-12-27T17:53:00Z</time>
      </trkpt>
      <trkpt lat="37.801740" lon="-122.230340">
        <ele>52.497</ele>
        <time>2018-12-27T17:53:20Z</time>
      </trkpt>
      <trkpt lat="37.801650" lon="-122.230200">
        <ele>53.254</ele>
        <time>2018-12-27T17:53:40Z</time>
      </trkpt>
      <trkpt lat="37.801550" lon="-122.230060">
        <ele>53.168</ele>
        <time>2018-12-27T17:54:00Z</time>
      </trkpt>
      <trkpt lat="37.801480" lon="-122.229950">
        <ele>53.014</ele>
        <time>2018-12-27T17:54:20Z</time>
      </trkpt>
      <trkpt lat="37.801230" lon="-122.229520">
        <ele>54.754</ele>
        <time>2018-12-27T17:54:40Z</time>
      </trkpt>
      <trkpt lat="37.801080" lon="-122.229210">
        <ele>55.409</ele>
        <time>2018-12-27T17:55:00Z</time>
      </trkpt>
      <trkpt lat="37.800940" lon="-122.228900">
        <ele>52.308</ele>
        <time>2018-12-27T17:55:20Z</time>
      </trkpt>
      <trkpt lat="37.800930" lon="-122.228890">
        <ele>51.974</ele>
        <time>2018-12-27T17:55:40Z</time>
      </trkpt>
      <trkpt lat="37.800910" lon="-122.228820">
        <ele>50.372</ele>
        <time>2018-12-27T17:56:00Z</time>
      </trkpt>
      <trkpt lat="37.800880" lon="-122.228760">
        <ele>49.147</ele>
        <time>2018-12-27T17:56:20Z</time>
      </trkpt>
      <trkpt lat="37.800880" lon="-122.228750">
        <ele>48.946</ele>
        <time>2018-12-27T17:56:40Z</time>
      </trkpt>
      <trkpt lat="37.800780" lon="-122.228470">
        <ele>57.990</ele>
        <time>2018-12-27T17:57:00Z</time>
      </trkpt>
      <trkpt lat="37.800650" lon="-122.228070">
        <ele>56.676</ele>
        <time>2018-12-27T17:57:20Z</time>
      </trkpt>
      <trkpt lat="37.800580" lon="-122.227820">
        <ele>57.053</ele>
        <time>2018-12-27T17:57:40Z</time>
      </trkpt>
      <trkpt lat="37.800550" lon="-122.227650">
        <ele>58.577</ele>
        <time>2018-12-27T17:58:00Z</time>
      </trkpt>
      <trkpt lat="37.800460" lon="-122.227260">
        <ele>55.782</ele>
        <time>2018-12-27T17:58:20Z</time>
      </trkpt>
      <trkpt lat="37.800420" lon="-122.227100">
        <ele>50.243</ele>
        <time>2018-12-27T17:58:40Z</time>
      </trkpt>
      <trkpt lat="37.800400" lon="-122.226970">
        <ele>50.017</ele>
        <time>2018-12-27T17:59:00Z</time>
      </trkpt>
      <trkpt lat="37.800390" lon="-122.226960">
        <ele>50.208</ele>
        <time>2018-12-27T17:59:20Z</time>
      </trkpt>
      <trkpt lat="37.800370" lon="-122.226840">
        <ele>51.081</ele>
        <time>2018-12-27T17:59:40Z</time>
      </trkpt>
      <trkpt lat="37.800310" lon="-122.226510">
        <ele>58.349</ele>
        <time>2018-12-27T18:00:00Z</time>
      </trkpt>
      <trkpt lat="37.800180" lon="-122.225900">
        <ele>57.134</ele>
        <time>2018-12-27T18:00:20Z</time>
      </trkpt>
      <trkpt lat="37.799920" lon="-122.224660">
        <ele>56.253</ele>
        <time>2018-12-27T18:00:40Z</time>
      </trkpt>
      <trkpt lat="37.799870" lon="-122.224380">
        <ele>56.147</ele>
        <time>2018-12-27T18:01:00Z</time>
      </trkpt>
      <trkpt lat="37.799250" lon="-122.221360">
        <ele>60.063</ele>
        <time>2018-12-27T18:01:20Z</time>
      </trkpt>
      <trkpt lat="37.799220" lon="-122.221230">
        <ele>60.320</ele>
        <time>2018-12-27T18:01:40Z</time>
      </trkpt>
      <trkpt lat="37.799180" lon="-122.221060">
        <ele>60.054</ele>
        <time>2018-12-27T18:02:00Z</time>
      </trkpt>
      <trkpt lat="37.799180" lon="-122.221050">
        <ele>60.034</ele>
        <time>2018-12-27T18:02:20Z</time>
      </trkpt>
      <trkpt lat="37.799170" lon="-122.221020">
        <ele>59.955</ele>
        <time>2018-12-27T18:02:40Z</time>
      </trkpt>
      <trkpt lat="37.799030" lon="-122.220400">
        <ele>58.310</ele>
        <time>2018-12-27T18:03:00Z</time>
      </trkpt>
      <trkpt lat="37.798940" lon="-122.219940">
        <ele>58.508</ele>
        <time>2018-12-27T18:03:20Z</time>
      </trkpt>
      <trkpt lat="37.798920" lon="-122.219890">
        <ele>58.056</ele>
        <time>2018-12-27T18:03:40Z</time>
      </trkpt>
      <trkpt lat="37.798610" lon="-122.218650">
        <ele>54.834</ele>
        <time>2018-12-27T18:04:00Z</time>
      </trkpt>
      <trkpt lat="37.798520" lon="-122.218270">
        <ele>54.979</ele>
        <time>2018-12-27T18:04:20Z</time>
      </trkpt>
      <trkpt lat="37.798480" lon="-122.218100">
        <ele>54.818</ele>
        <time>2018-12-27T18:04:40Z</time>
      </trkpt>
      <trkpt lat="37.798400" lon="-122.217790">
        <ele>53.612</ele>
        <time>2018-12-27T18:05:00Z</time>
      </trkpt>
      <trkpt lat="37.798210" lon="-122.216970">
        <ele>48.038</ele>
        <time>2018-12-27T18:05:20Z</time>
      </trkpt>
      <trkpt lat="37.798200" lon="-122.216920">
        <ele>48.085</ele>
        <time>2018-12-27T18:05:40Z</time>
      </trkpt>
      <trkpt lat="37.798180" lon="-122.216860">
        <ele>48.179</ele>
        <time>2018-12-27T18:06:00Z</time>
      </trkpt>
      <trkpt lat="37.798130" lon="-122.216660">
        <ele>48.237</ele>
        <time>2018-12-27T18:06:20Z</time>
      </trkpt>
      <trkpt lat="37.798060" lon="-122.216400">
        <ele>48.049</ele>
        <time>2018-12-27T18:06:40Z</time>
      </trkpt>
      <trkpt lat="37.798040" lon="-122.216320">
        <ele>47.813</ele>
        <time>2018-12-27T18:07:00Z</time>
      </trkpt>
      <trkpt lat="37.797910" lon="-122.215810">
        <ele>48.108</ele>
        <time>2018-12-27T18:07:20Z</time>
      </trkpt>
      <trkpt lat="37.797870" lon="-122.215640">
        <ele>48.686</ele>
        <time>2018-12-27T18:07:40Z</time>
      </trkpt>
      <trkpt lat="37.797850" lon="-122.215590">
        <ele>49.354</ele>
        <time>2018-12-27T18:08:00Z</time>
      </trkpt>
      <trkpt lat="37.797640" lon="-122.214670">
        <ele>55.349</ele>
        <time>2018-12-27T18:08:20Z</time>
      </trkpt>
      <trkpt lat="37.797620" lon="-122.214610">
        <ele>55.758</ele>
        <time>2018-12-27T18:08:40Z</time>
      </trkpt>
      <trkpt lat="37.797390" lon="-122.213670">
        <ele>55.942</ele>
        <time>2018-12-27T18:09:00Z</time>
      </trkpt>
      <trkpt lat="37.797380" lon="-122.213660">
        <ele>55.958</ele>
        <time>2018-12-27T18:09:20Z</time>
      </trkpt>
      <trkpt lat="37.797370" lon="-122.213580">
        <ele>56.025</ele>
        <time>2018-12-27T18:09:40Z</time>
      </trkpt>
      <trkpt lat="37.797020" lon="-122.212270">
        <ele>57.479</ele>
        <time>2018-12-27T18:10:00Z</time>
      </trkpt>
      <trkpt lat="37.796900" lon="-122.211830">
        <ele>58.885</ele>
        <time>2018-12-27T18:10:20Z</time>
      </trkpt>
      <trkpt lat="37.796730" lon="-122.211320">
        <ele>59.489</ele>
        <time>2018-12-27T18:10:40Z</time>
      </trkpt>
      <trkpt lat="37.796520" lon="-122.210750">
        <ele>55.817</ele>
        <time>2018-12-27T18:11:00Z</time>
      </trkpt>
      <trkpt lat="37.796490" lon="-122.210670">
        <ele>55.508</ele>
        <time>2018-12-27T18:11:20Z</time>
      </trkpt>
      <trkpt lat="37.796260" lon="-122.210170">
        <ele>61.761</ele>
        <time>2018-12-27T18:11:40Z</time>
      </trkpt>
      <trkpt lat="37.796040" lon="-122.209680">
        <ele>62.489</ele>
        <time>2018-12-27T18:12:00Z</time>
      </trkpt>
      <trkpt lat="37.795740" lon="-122.209060">
        <ele>63.144</ele>
        <time>2018-12-27T18:12:20Z</time>
      </trkpt>
      <trkpt lat="37.795530" lon="-122.208580">
        <ele>63.583</ele>
        <time>2018-12-27T18:12:40Z</time>
      </trkpt>
      <trkpt lat="37.795190" lon="-122.207870">
        <ele>63.717</ele>
        <time>2018-12-27T18:13:00Z</time>
      </trkpt>
      <trkpt lat="37.794960" lon="-122.207380">
        <ele>57.533</ele>
        <time>2018-12-27T18:13:20Z</time>
      </trkpt>
      <trkpt lat="37.794850" lon="-122.207150">
        <ele>61.280</ele>
        <time>2018-12-27T18:13:40Z</time>
      </trkpt>
      <trkpt lat="37.794680" lon="-122.206800">
        <ele>61.964</ele>
        <time>2018-12-27T18:14:00Z</time>
      </trkpt>
      <trkpt lat="37.794560" lon="-122.206550">
        <ele>61.127</ele>
        <time>2018-12-27T18:14:20Z</time>
      </trkpt>
      <trkpt lat="37.794430" lon="-122.206290">
        <ele>60.468</ele>
        <time>2018-12-27T18:14:40Z</time>
      </trkpt>
      <trkpt lat="37.794320" lon="-122.206100">
        <ele>60.014</ele>
        <time>2018-12-27T18:15:00Z</time>
      </trkpt>
      <trkpt lat="37.794230" lon="-122.205920">
        <ele>58.708</ele>
        <time>2018-12-27T18:15:20Z</time>
      </trkpt>
      <trkpt lat="37.794100" lon="-122.205720">
        <ele>58.495</ele>
        <time>2018-12-27T18:15:40Z</time>
      </trkpt>
      <trkpt lat="37.793980" lon="-122.205520">
        <ele>57.773</ele>
        <time>2018-12-27T18:16:00Z</time>
      </trkpt>
      <trkpt lat="37.793620" lon="-122.205020">
        <ele>55.768</ele>
        <time>2018-12-27T18:16:20Z</time>
      </trkpt>
      <trkpt lat="37.793480" lon="-122.204830">
        <ele>55.037</ele>
        <time>2018-12-27T18:16:40Z</time>
      </trkpt>
      <trkpt lat="37.793370" lon="-122.204690">
        <ele>54.391</ele>
        <time>2018-12-27T18:17:00Z</time>
      </trkpt>
      <trkpt lat="37.793240" lon="-122.204540">
        <ele>53.657</ele>
        <time>2018-12-27T18:17:20Z</time>
      </trkpt>
      <trkpt lat="37.792810" lon="-122.204060">
        <ele>51.664</ele>
        <time>2018-12-27T18:17:40Z</time>
      </trkpt>
      <trkpt lat="37.792530" lon="-122.203790">
        <ele>50.448</ele>
        <time>2018-12-27T18:18:00Z</time>
      </trkpt>
      <trkpt lat="37.792240" lon="-122.203530">
        <ele>49.324</ele>
        <time>2018-12-27T18:18:20Z</time>
      </trkpt>
      <trkpt lat="37.792160" lon="-122.203450">
        <ele>48.404</ele>
        <time>2018-12-27T18:18:40Z</time>
      </trkpt>
      <trkpt lat="37.792110" lon="-122.203390">
        <ele>48.214</ele>
        <time>2018-12-27T18:19:00Z</time>
      </trkpt>
      <trkpt lat="37.792060" lon="-122.203350">
        <ele>48.408</ele>
        <time>2018-12-27T18:19:20Z</time>
      </trkpt>
      <trkpt lat="37.791690" lon="-122.203020">
        <ele>48.735</ele>
        <time>2018-12-27T18:19:40Z</time>
      </trkpt>
      <trkpt lat="37.790400" lon="-122.201810">
        <ele>47.913</ele>
        <time>2018-12-27T18:20:00Z</time>
      </trkpt>
      <trkpt lat="37.790020" lon="-122.201450">
        <ele>48.438</ele>
        <time>2018-12-27T18:20:20Z</time>
      </trkpt>
      <trkpt lat="37.789700" lon="-122.201120">
        <ele>48.887</ele>
        <time>2018-12-27T18:20:40Z</time>
      </trkpt>
      <trkpt lat="37.789410" lon="-122.200790">
        <ele>49.091</ele>
        <time>2018-12-27T18:21:00Z</time>
      </trkpt>
      <trkpt lat="37.789250" lon="-122.200580">
        <ele>49.387</ele>
        <time>2018-12-27T18:21:20Z</time>
      </trkpt>
      <trkpt lat="37.789240" lon="-122.200570">
        <ele>49.494</ele>
        <time>2018-12-27T18:21:40Z</time>
      </trkpt>
      <trkpt lat="37.788780" lon="-122.199940">
        <ele>50.918</ele>
        <time>2018-12-27T18:22:00Z</time>
      </trkpt>
      <trkpt lat="37.788480" lon="-122.199470">
        <ele>51.816</ele>
        <time>2018-12-27T18:22:20Z</time>
      </trkpt>
      <trkpt lat="37.788310" lon="-122.199160">
        <ele>52.476</ele>
        <time>2018-12-27T18:22:40Z</time>
      </trkpt>
      <trkpt lat="37.788210" lon="-122.198990">
        <ele>52.713</ele>
        <time>2018-12-27T18:23:00Z</time>
      </trkpt>
      <trkpt lat="37.788030" lon="-122.198660">
        <ele>52.608</ele>
        <time>2018-12-27T18:23:20Z</time>
      </trkpt>
      <trkpt lat="37.787930" lon="-122.198460">
        <ele>52.944</ele>
        <time>2018-12-27T18:23:40Z</time>
      </trkpt>
      <trkpt lat="37.787880" lon="-122.198350">
        <ele>52.862</ele>
        <time>2018-12-27T18:24:00Z</time>
      </trkpt>
      <trkpt lat="37.787210" lon="-122.197000">
        <ele>52.677</ele>
        <time>2018-12-27T18:24:20Z</time>
      </trkpt>
      <trkpt lat="37.786700" lon="-122.195980">
        <ele>49.136</ele>
        <time>2018-12-27T18:24:40Z</time>
      </trkpt>
      <trkpt lat="37.786640" lon="-122.195860">
        <ele>50.820</ele>
        <time>2018-12-27T18:25:00Z</time>
      </trkpt>
      <trkpt lat="37.786270" lon="-122.195130">
        <ele>58.376</ele>
        <time>2018-12-27T18:25:20Z</time>
      </trkpt>
      <trkpt lat="37.786170" lon="-122.194940">
        <ele>57.333</ele>
        <time>2018-12-27T18:25:40Z</time>
      </trkpt>
      <trkpt lat="37.786080" lon="-122.194750">
        <ele>57.547</ele>
        <time>2018-12-27T18:26:00Z</time>
      </trkpt>
      <trkpt lat="37.786000" lon="-122.194580">
        <ele>59.742</ele>
        <time>2018-12-27T18:26:20Z</time>
      </trkpt>
      <trkpt lat="37.785890" lon="-122.194330">
        <ele>59.922</ele>
        <time>2018-12-27T18:26:40Z</time>
      </trkpt>
      <trkpt lat="37.785710" lon="-122.193930">
        <ele>60.614</ele>
        <time>2018-12-27T18:27:00Z</time>
      </trkpt>
      <trkpt lat="37.785540" lon="-122.193500">
        <ele>60.208</ele>
        <time>2018-12-27T18:27:20Z</time>
      </trkpt>
      <trkpt lat="37.785530" lon="-122.193490">
        <ele>60.237</ele>
        <time>2018-12-27T18:27:40Z</time>
      </trkpt>
      <trkpt lat="37.785450" lon="-122.193280">
        <ele>60.455</ele>
        <time>2018-12-27T18:28:00Z</time>
      </trkpt>
      <trkpt lat="37.785390" lon="-122.193110">
        <ele>59.580</ele>
        <time>2018-12-27T18:28:20Z</time>
      </trkpt>
      <trkpt lat="37.785340" lon="-122.192990">
        <ele>58.679</ele>
        <time>2018-12-27T18:28:40Z</time>
      </trkpt>
      <trkpt lat="37.785190" lon="-122.192550">
        <ele>57.553</ele>
        <time>2018-12-27T18:29:00Z</time>
      </trkpt>
      <trkpt lat="37.785020" lon="-122.192040">
        <ele>58.749</ele>
        <time>2018-12-27T18:29:20Z</time>
      </trkpt>
      <trkpt lat="37.784890" lon="-122.191620">
        <ele>59.326</ele>
        <time>2018-12-27T18:29:40Z</time>
      </trkpt>
      <trkpt lat="37.784810" lon="-122.191310">
        <ele>58.190</ele>
        <time>2018-12-27T18:30:00Z</time>
      </trkpt>
      <trkpt lat="37.784760" lon="-122.191130">
        <ele>57.629</ele>
        <time>2018-12-27T18:30:20Z</time>
      </trkpt>
      <trkpt lat="37.784660" lon="-122.190720">
        <ele>57.600</ele>
        <time>2018-12-27T18:30:40Z</time>
      </trkpt>
      <trkpt lat="37.784570" lon="-122.190340">
        <ele>56.920</ele>
        <time>2018-12-27T18:31:00Z</time>
      </trkpt>
      <trkpt lat="37.784440" lon="-122.189700">
        <ele>56.108</ele>
        <time>2018-12-27T18:31:20Z</time>
      </trkpt>
      <trkpt lat="37.784340" lon="-122.189130">
        <ele>55.655</ele>
        <time>2018-12-27T18:31:40Z</time>
      </trkpt>
      <trkpt lat="37.784320" lon="-122.189040">
        <ele>55.513</ele>
        <time>2018-12-27T18:32:00Z</time>
      </trkpt>
      <trkpt lat="37.784310" lon="-122.188920">
        <ele>55.528</ele>
        <time>2018-12-27T18:32:20Z</time>
      </trkpt>
      <trkpt lat="37.784290" lon="-122.188800">
        <ele>55.267</ele>
        <time>2018-12-27T18:32:40Z</time>
      </trkpt>
      <trkpt lat="37.784130" lon="-122.187360">
        <ele>54.441</ele>
        <time>2018-12-27T18:33:00Z</time>
      </trkpt>
      <trkpt lat="37.784110" lon="-122.187150">
        <ele>54.567</ele>
        <time>2018-12-27T18:33:20Z</time>
      </trkpt>
      <trkpt lat="37.784080" lon="-122.186690">
        <ele>54.474</ele>
        <time>2018-12-27T18:33:40Z</time>
      </trkpt>
      <trkpt lat="37.784060" lon="-122.186000">
        <ele>54.238</ele>
        <time>2018-12-27T18:34:00Z</time>
      </trkpt>
      <trkpt lat="37.784060" lon="-122.185810">
        <ele>54.318</ele>
        <time>2018-12-27T18:34:20Z</time>
      </trkpt>
      <trkpt lat="37.784040" lon="-122.185240">
        <ele>55.398</ele>
        <time>2018-12-27T18:34:40Z</time>
      </trkpt>
      <trkpt lat="37.783980" lon="-122.183910">
        <ele>57.717</ele>
        <time>2018-12-27T18:35:00Z</time>
      </trkpt>
      <trkpt lat="37.783970" lon="-122.183420">
        <ele>59.308</ele>
        <time>2018-12-27T18:35:20Z</time>
      </trkpt>
      <trkpt lat="37.783950" lon="-122.183100">
        <ele>60.114</ele>
        <time>2018-12-27T18:35:40Z</time>
      </trkpt>
      <trkpt lat="37.783930" lon="-122.182410">
        <ele>62.322</ele>
        <time>2018-12-27T18:36:00Z</time>
      </trkpt>
      <trkpt lat="37.783900" lon="-122.181250">
        <ele>63.287</ele>
        <time>2018-12-27T18:36:20Z</time>
      </trkpt>
      <trkpt lat="37.783890" lon="-122.180940">
        <ele>63.536</ele>
        <time>2018-12-27T18:36:40Z</time>
      </trkpt>
      <trkpt lat="37.783880" lon="-122.180700">
        <ele>60.140</ele>
        <time>2018-12-27T18:37:00Z</time>
      </trkpt>
      <trkpt lat="37.783880" lon="-122.180680">
        <ele>60.496</ele>
        <time>2018-12-27T18:37:20Z</time>
      </trkpt>
      <trkpt lat="37.783880" lon="-122.180470">
        <ele>65.313</ele>
        <time>2018-12-27T18:37:40Z</time>
      </trkpt>
      <trkpt lat="37.783820" lon="-122.179530">
        <ele>69.247</ele>
        <time>2018-12-27T18:38:00Z</time>
      </trkpt>
      <trkpt lat="37.783810" lon="-122.179400">
        <ele>69.791</ele>
        <time>2018-12-27T18:38:20Z</time>
      </trkpt>
      <trkpt lat="37.783790" lon="-122.179230">
        <ele>70.281</ele>
        <time>2018-12-27T18:38:40Z</time>
      </trkpt>
      <trkpt lat="37.783750" lon="-122.179040">
        <ele>70.719</ele>
        <time>2018-12-27T18:39:00Z</time>
      </trkpt>
      <trkpt lat="37.783720" lon="-122.178890">
        <ele>71.208</ele>
        <time>2018-12-27T18:39:20Z</time>
      </trkpt>
      <trkpt lat="37.783680" lon="-122.178700">
        <ele>72.082</ele>
        <time>2018-12-27T18:39:40Z</time>
      </trkpt>
      <trkpt lat="37.783630" lon="-122.178500">
        <ele>72.590</ele>
        <time>2018-12-27T18:40:00Z</time>
      </trkpt>
      <trkpt lat="37.783560" lon="-122.178250">
        <ele>72.785</ele>
        <time>2018-12-27T18:40:20Z</time>
      </trkpt>
      <trkpt lat="37.783550" lon="-122.178230">
        <ele>72.754</ele>
        <time>2018-12-27T18:40:40Z</time>
      </trkpt>
      <trkpt lat="37.783540" lon="-122.178200">
        <ele>72.788</ele>
        <time>2018-12-27T18:41:00Z</time>
      </trkpt>
      <trkpt lat="37.783490" lon="-122.178050">
        <ele>73.124</ele>
        <time>2018-12-27T18:41:20Z</time>
      </trkpt>
      <trkpt lat="37.783440" lon="-122.177900">
        <ele>74.191</ele>
        <time>2018-12-27T18:41:40Z</time>
      </trkpt>
      <trkpt lat="37.783350" lon="-122.177690">
        <ele>75.095</ele>
        <time>2018-12-27T18:42:00Z</time>
      </trkpt>
      <trkpt lat="37.783280" lon="-122.177520">
        <ele>75.318</ele>
        <time>2018-12-27T18:42:20Z</time>
      </trkpt>
      <trkpt lat="37.783180" lon="-122.177320">
        <ele>75.698</ele>
        <time>2018-12-27T18:42:40Z</time>
      </trkpt>
      <trkpt lat="37.783090" lon="-122.177170">
        <ele>76.717</ele>
        <time>2018-12-27T18:43:00Z</time>
      </trkpt>
      <trkpt lat="37.782930" lon="-122.176900">
        <ele>77.008</ele>
        <time>2018-12-27T18:43:20Z</time>
      </trkpt>
      <trkpt lat="37.782460" lon="-122.176160">
        <ele>80.724</ele>
        <time>2018-12-27T18:43:40Z</time>
      </trkpt>
      <trkpt lat="37.781820" lon="-122.175180">
        <ele>85.112</ele>
        <time>2018-12-27T18:44:00Z</time>
      </trkpt>
      <trkpt lat="37.781560" lon="-122.174750">
        <ele>87.057</ele>
        <time>2018-12-27T18:44:20Z</time>
      </trkpt>
      <trkpt lat="37.781260" lon="-122.174250">
        <ele>88.546</ele>
        <time>2018-12-27T18:44:40Z</time>
      </trkpt>
      <trkpt lat="37.781060" lon="-122.173910">
        <ele>85.920</ele>
        <time>2018-12-27T18:45:00Z</time>
      </trkpt>
      <trkpt lat="37.780930" lon="-122.173690">
        <ele>80.846</ele>
        <time>2018-12-27T18:45:20Z</time>
      </trkpt>
      <trkpt lat="37.780890" lon="-122.173610">
        <ele>81.913</ele>
        <time>2018-12-27T18:45:40Z</time>
      </trkpt>
      <trkpt lat="37.780710" lon="-122.173290">
        <ele>88.957</ele>
        <time>2018-12-27T18:46:00Z</time>
      </trkpt>
      <trkpt lat="37.780620" lon="-122.173110">
        <ele>90.356</ele>
        <time>2018-12-27T18:46:20Z</time>
      </trkpt>
      <trkpt lat="37.780430" lon="-122.172680">
        <ele>91.159</ele>
        <time>2018-12-27T18:46:40Z</time>
      </trkpt>
      <trkpt lat="37.779760" lon="-122.171420">
        <ele>90.314</ele>
        <time>2018-12-27T18:47:00Z</time>
      </trkpt>
      <trkpt lat="37.779290" lon="-122.170530">
        <ele>90.108</ele>
        <time>2018-12-27T18:47:20Z</time>
      </trkpt>
      <trkpt lat="37.778750" lon="-122.169520">
        <ele>89.818</ele>
        <time>2018-12-27T18:47:40Z</time>
      </trkpt>
      <trkpt lat="37.778580" lon="-122.169180">
        <ele>89.446</ele>
        <time>2018-12-27T18:48:00Z</time>
      </trkpt>
      <trkpt lat="37.778310" lon="-122.168650">
        <ele>88.941</ele>
        <time>2018-12-27T18:48:20Z</time>
      </trkpt>
      <trkpt lat="37.778000" lon="-122.168020">
        <ele>89.220</ele>
        <time>2018-12-27T18:48:40Z</time>
      </trkpt>
      <trkpt lat="37.777560" lon="-122.167070">
        <ele>90.084</ele>
        <time>2018-12-27T18:49:00Z</time>
      </trkpt>
      <trkpt lat="37.776970" lon="-122.165740">
        <ele>93.060</ele>
        <time>2018-12-27T18:49:20Z</time>
      </trkpt>
      <trkpt lat="37.776270" lon="-122.164210">
        <ele>91.757</ele>
        <time>2018-12-27T18:49:40Z</time>
      </trkpt>
      <trkpt lat="37.776010" lon="-122.163650">
        <ele>97.031</ele>
        <time>2018-12-27T18:50:00Z</time>
      </trkpt>
      <trkpt lat="37.775280" lon="-122.162200">
        <ele>99.356</ele>
        <time>2018-12-27T18:50:20Z</time>
      </trkpt>
      <trkpt lat="37.774170" lon="-122.160000">
        <ele>100.859</ele>
        <time>2018-12-27T18:50:40Z</time>
      </trkpt>
      <trkpt lat="37.773940" lon="-122.159550">
        <ele>99.814</ele>
        <time>2018-12-27T18:51:00Z</time>
      </trkpt>
      <trkpt lat="37.773810" lon="-122.159300">
        <ele>98.508</ele>
        <time>2018-12-27T18:51:20Z</time>
      </trkpt>
      <trkpt lat="37.773660" lon="-122.159000">
        <ele>97.998</ele>
        <time>2018-12-27T18:51:40Z</time>
      </trkpt>
      <trkpt lat="37.773370" lon="-122.158490">
        <ele>96.486</ele>
        <time>2018-12-27T18:52:00Z</time>
      </trkpt>
      <trkpt lat="37.773080" lon="-122.158020">
        <ele>94.791</ele>
        <time>2018-12-27T18:52:20Z</time>
      </trkpt>
      <trkpt lat="37.772790" lon="-122.157600">
        <ele>93.750</ele>
        <time>2018-12-27T18:52:40Z</time>
      </trkpt>
      <trkpt lat="37.772450" lon="-122.157140">
        <ele>92.364</ele>
        <time>2018-12-27T18:53:00Z</time>
      </trkpt>
      <trkpt lat="37.772070" lon="-122.156680">
        <ele>91.160</ele>
        <time>2018-12-27T18:53:20Z</time>
      </trkpt>
      <trkpt lat="37.771830" lon="-122.156410">
        <ele>90.777</ele>
        <time>2018-12-27T18:53:40Z</time>
      </trkpt>
      <trkpt lat="37.771590" lon="-122.156150">
        <ele>90.671</ele>
        <time>2018-12-27T18:54:00Z</time>
      </trkpt>
      <trkpt lat="37.771300" lon="-122.155860">
        <ele>90.682</ele>
        <time>2018-12-27T18:54:20Z</time>
      </trkpt>
      <trkpt lat="37.771000" lon="-122.155580">
        <ele>90.343</ele>
        <time>2018-12-27T18:54:40Z</time>
      </trkpt>
      <trkpt lat="37.770730" lon="-122.155350">
        <ele>90.117</ele>
        <time>2018-12-27T18:55:00Z</time>
      </trkpt>
      <trkpt lat="37.770280" lon="-122.154980">
        <ele>90.508</ele>
        <time>2018-12-27T18:55:20Z</time>
      </trkpt>
      <trkpt lat="37.769910" lon="-122.154710">
        <ele>90.011</ele>
        <time>2018-12-27T18:55:40Z</time>
      </trkpt>
      <trkpt lat="37.769550" lon="-122.154480">
        <ele>90.029</ele>
        <time>2018-12-27T18:56:00Z</time>
      </trkpt>
      <trkpt lat="37.769230" lon="-122.154290">
        <ele>89.934</ele>
        <time>2018-12-27T18:56:20Z</time>
      </trkpt>
      <trkpt lat="37.768980" lon="-122.154130">
        <ele>89.913</ele>
        <time>2018-12-27T18:56:40Z</time>
      </trkpt>
      <trkpt lat="37.768560" lon="-122.153890">
        <ele>89.777</ele>
        <time>2018-12-27T18:57:00Z</time>
      </trkpt>
      <trkpt lat="37.767960" lon="-122.153510">
        <ele>90.023</ele>
        <time>2018-12-27T18:57:20Z</time>
      </trkpt>
      <trkpt lat="37.767240" lon="-122.153080">
        <ele>90.350</ele>
        <time>2018-12-27T18:57:40Z</time>
      </trkpt>
      <trkpt lat="37.766900" lon="-122.152880">
        <ele>90.594</ele>
        <time>2018-12-27T18:58:00Z</time>
      </trkpt>
      <trkpt lat="37.766490" lon="-122.152620">
        <ele>91.324</ele>
        <time>2018-12-27T18:58:20Z</time>
      </trkpt>
      <trkpt lat="37.766270" lon="-122.152470">
        <ele>91.804</ele>
        <time>2018-12-27T18:58:40Z</time>
      </trkpt>
      <trkpt lat="37.766080" lon="-122.152340">
        <ele>91.614</ele>
        <time>2018-12-27T18:59:00Z</time>
      </trkpt>
      <trkpt lat="37.766070" lon="-122.152330">
        <ele>91.608</ele>
        <time>2018-12-27T18:59:20Z</time>
      </trkpt>
      <trkpt lat="37.765870" lon="-122.152190">
        <ele>92.295</ele>
        <time>2018-12-27T18:59:40Z</time>
      </trkpt>
      <trkpt lat="37.765640" lon="-122.152010">
        <ele>92.283</ele>
        <time>2018-12-27T19:00:00Z</time>
      </trkpt>
      <trkpt lat="37.765030" lon="-122.151520">
        <ele>91.228</ele>
        <time>2018-12-27T19:00:20Z</time>
      </trkpt>
      <trkpt lat="37.764270" lon="-122.150860">
        <ele>89.457</ele>
        <time>2018-12-27T19:00:40Z</time>
      </trkpt>
      <trkpt lat="37.763960" lon="-122.150630">
        <ele>88.291</ele>
        <time>2018-12-27T19:01:00Z</time>
      </trkpt>
      <trkpt lat="37.762860" lon="-122.149790">
        <ele>82.357</ele>
        <time>2018-12-27T19:01:20Z</time>
      </trkpt>
      <trkpt lat="37.762150" lon="-122.149340">
        <ele>79.124</ele>
        <time>2018-12-27T19:01:40Z</time>
      </trkpt>
      <trkpt lat="37.761330" lon="-122.148790">
        <ele>74.948</ele>
        <time>2018-12-27T19:02:00Z</time>
      </trkpt>
      <trkpt lat="37.760510" lon="-122.148360">
        <ele>70.755</ele>
        <time>2018-12-27T19:02:20Z</time>
      </trkpt>
      <trkpt lat="37.759960" lon="-122.148120">
        <ele>69.107</ele>
        <time>2018-12-27T19:02:40Z</time>
      </trkpt>
      <trkpt lat="37.759600" lon="-122.148010">
        <ele>68.917</ele>
        <time>2018-12-27T19:03:00Z</time>
      </trkpt>
      <trkpt lat="37.759350" lon="-122.147950">
        <ele>68.808</ele>
        <time>2018-12-27T19:03:20Z</time>
      </trkpt>
      <trkpt lat="37.759070" lon="-122.147920">
        <ele>68.388</ele>
        <time>2018-12-27T19:03:40Z</time>
      </trkpt>
      <trkpt lat="37.758870" lon="-122.147900">
        <ele>68.176</ele>
        <time>2018-12-27T19:04:00Z</time>
      </trkpt>
      <trkpt lat="37.758740" lon="-122.147890">
        <ele>68.151</ele>
        <time>2018-12-27T19:04:20Z</time>
      </trkpt>
      <trkpt lat="37.758610" lon="-122.147890">
        <ele>68.010</ele>
        <time>2018-12-27T19:04:40Z</time>
      </trkpt>
      <trkpt lat="37.758330" lon="-122.147920">
        <ele>67.784</ele>
        <time>2018-12-27T19:05:00Z</time>
      </trkpt>
      <trkpt lat="37.757990" lon="-122.147980">
        <ele>67.980</ele>
        <time>2018-12-27T19:05:20Z</time>
      </trkpt>
      <trkpt lat="37.757790" lon="-122.148060">
        <ele>67.317</ele>
        <time>2018-12-27T19:05:40Z</time>
      </trkpt>
      <trkpt lat="37.757390" lon="-122.148220">
        <ele>66.761</ele>
        <time>2018-12-27T19:06:00Z</time>
      </trkpt>
      <trkpt lat="37.756930" lon="-122.148430">
        <ele>64.636</ele>
        <time>2018-12-27T19:06:20Z</time>
      </trkpt>
      <trkpt lat="37.756650" lon="-122.148610">
        <ele>63.617</ele>
        <time>2018-12-27T19:06:40Z</time>
      </trkpt>
      <trkpt lat="37.756460" lon="-122.148750">
        <ele>63.118</ele>
        <time>2018-12-27T19:07:00Z</time>
      </trkpt>
      <trkpt lat="37.755960" lon="-122.149230">
        <ele>61.008</ele>
        <time>2018-12-27T19:07:20Z</time>
      </trkpt>
      <trkpt lat="37.755590" lon="-122.149650">
        <ele>59.626</ele>
        <time>2018-12-27T19:07:40Z</time>
      </trkpt>
      <trkpt lat="37.755390" lon="-122.149860">
        <ele>59.444</ele>
        <time>2018-12-27T19:08:00Z</time>
      </trkpt>
      <trkpt lat="37.755090" lon="-122.150180">
        <ele>58.359</ele>
        <time>2018-12-27T19:08:20Z</time>
      </trkpt>
      <trkpt lat="37.754910" lon="-122.150380">
        <ele>57.978</ele>
        <time>2018-12-27T19:08:40Z</time>
      </trkpt>
      <trkpt lat="37.754690" lon="-122.150630">
        <ele>56.832</ele>
        <time>2018-12-27T19:09:00Z</time>
      </trkpt>
      <trkpt lat="37.754600" lon="-122.150730">
        <ele>57.188</ele>
        <time>2018-12-27T19:09:20Z</time>
      </trkpt>
      <trkpt lat="37.754480" lon="-122.150840">
        <ele>56.225</ele>
        <time>2018-12-27T19:09:40Z</time>
      </trkpt>
      <trkpt lat="37.754270" lon="-122.151020">
        <ele>56.769</ele>
        <time>2018-12-27T19:10:00Z</time>
      </trkpt>
      <trkpt lat="37.754120" lon="-122.151160">
        <ele>56.367</ele>
        <time>2018-12-27T19:10:20Z</time>
      </trkpt>
      <trkpt lat="37.753950" lon="-122.151290">
        <ele>54.081</ele>
        <time>2018-12-27T19:10:40Z</time>
      </trkpt>
      <trkpt lat="37.753780" lon="-122.151410">
        <ele>48.219</ele>
        <time>2018-12-27T19:11:00Z</time>
      </trkpt>
      <trkpt lat="37.753720" lon="-122.151450">
        <ele>48.608</ele>
        <time>2018-12-27T19:11:20Z</time>
      </trkpt>
      <trkpt lat="37.753630" lon="-122.151490">
        <ele>51.539</ele>
        <time>2018-12-27T19:11:40Z</time>
      </trkpt>
      <trkpt lat="37.753530" lon="-122.151540">
        <ele>55.127</ele>
        <time>2018-12-27T19:12:00Z</time>
      </trkpt>
      <trkpt lat="37.753390" lon="-122.151600">
        <ele>56.512</ele>
        <time>2018-12-27T19:12:20Z</time>
      </trkpt>
      <trkpt lat="37.753230" lon="-122.151680">
        <ele>56.891</ele>
        <time>2018-12-27T19:12:40Z</time>
      </trkpt>
      <trkpt lat="37.753060" lon="-122.151750">
        <ele>57.195</ele>
        <time>2018-12-27T19:13:00Z</time>
      </trkpt>
      <trkpt lat="37.752880" lon="-122.151810">
        <ele>57.271</ele>
        <time>2018-12-27T19:13:20Z</time>
      </trkpt>
      <trkpt lat="37.752690" lon="-122.151860">
        <ele>57.018</ele>
        <time>2018-12-27T19:13:40Z</time>
      </trkpt>
      <trkpt lat="37.752500" lon="-122.151900">
        <ele>56.842</ele>
        <time>2018-12-27T19:14:00Z</time>
      </trkpt>
      <trkpt lat="37.752320" lon="-122.151930">
        <ele>56.713</ele>
        <time>2018-12-27T19:14:20Z</time>
      </trkpt>
      <trkpt lat="37.752140" lon="-122.151950">
        <ele>56.543</ele>
        <time>2018-12-27T19:14:40Z</time>
      </trkpt>
      <trkpt lat="37.751960" lon="-122.151970">
        <ele>56.407</ele>
        <time>2018-12-27T19:15:00Z</time>
      </trkpt>
      <trkpt lat="37.751760" lon="-122.151970">
        <ele>56.108</ele>
        <time>2018-12-27T19:15:20Z</time>
      </trkpt>
      <trkpt lat="37.751590" lon="-122.151970">
        <ele>55.954</ele>
        <time>2018-12-27T19:15:40Z</time>
      </trkpt>
      <trkpt lat="37.751460" lon="-122.151960">
        <ele>55.612</ele>
        <time>2018-12-27T19:16:00Z</time>
      </trkpt>
      <trkpt lat="37.751300" lon="-122.151940">
        <ele>55.397</ele>
        <time>2018-12-27T19:16:20Z</time>
      </trkpt>
      <trkpt lat="37.751090" lon="-122.151900">
        <ele>54.676</ele>
        <time>2018-12-27T19:16:40Z</time>
      </trkpt>
      <trkpt lat="37.750930" lon="-122.151870">
        <ele>54.160</ele>
        <time>2018-12-27T19:17:00Z</time>
      </trkpt>
      <trkpt lat="37.750830" lon="-122.151840">
        <ele>53.916</ele>
        <time>2018-12-27T19:17:20Z</time>
      </trkpt>
      <trkpt lat="37.750700" lon="-122.151810">
        <ele>54.083</ele>
        <time>2018-12-27T19:17:40Z</time>
      </trkpt>
      <trkpt lat="37.750540" lon="-122.151750">
        <ele>53.537</ele>
        <time>2018-12-27T19:18:00Z</time>
      </trkpt>
      <trkpt lat="37.750390" lon="-122.151690">
        <ele>52.776</ele>
        <time>2018-12-27T19:18:20Z</time>
      </trkpt>
      <trkpt lat="37.750230" lon="-122.151630">
        <ele>51.390</ele>
        <time>2018-12-27T19:18:40Z</time>
      </trkpt>
      <trkpt lat="37.750070" lon="-122.151550">
        <ele>51.219</ele>
        <time>2018-12-27T19:19:00Z</time>
      </trkpt>
      <trkpt lat="37.749950" lon="-122.151490">
        <ele>51.008</ele>
        <time>2018-12-27T19:19:20Z</time>
      </trkpt>
      <trkpt lat="37.749840" lon="-122.151440">
        <ele>50.570</ele>
        <time>2018-12-27T19:19:40Z</time>
      </trkpt>
      <trkpt lat="37.749590" lon="-122.151310">
        <ele>48.958</ele>
        <time>2018-12-27T19:20:00Z</time>
      </trkpt>
      <trkpt lat="37.749200" lon="-122.151130">
        <ele>47.483</ele>
        <time>2018-12-27T19:20:20Z</time>
      </trkpt>
      <trkpt lat="37.747230" lon="-122.150170">
        <ele>42.892</ele>
        <time>2018-12-27T19:20:40Z</time>
      </trkpt>
      <trkpt lat="37.746450" lon="-122.149790">
        <ele>42.466</ele>
        <time>2018-12-27T19:21:00Z</time>
      </trkpt>
      <trkpt lat="37.746140" lon="-122.149650">
        <ele>42.012</ele>
        <time>2018-12-27T19:21:20Z</time>
      </trkpt>
      <trkpt lat="37.745750" lon="-122.149430">
        <ele>41.869</ele>
        <time>2018-12-27T19:21:40Z</time>
      </trkpt>
      <trkpt lat="37.745560" lon="-122.149300">
        <ele>42.653</ele>
        <time>2018-12-27T19:22:00Z</time>
      </trkpt>
      <trkpt lat="37.745340" lon="-122.149110">
        <ele>39.521</ele>
        <time>2018-12-27T19:22:20Z</time>
      </trkpt>
      <trkpt lat="37.745070" lon="-122.148880">
        <ele>32.741</ele>
        <time>2018-12-27T19:22:40Z</time>
      </trkpt>
      <trkpt lat="37.745060" lon="-122.148870">
        <ele>32.805</ele>
        <time>2018-12-27T19:23:00Z</time>
      </trkpt>
      <trkpt lat="37.745040" lon="-122.148860">
        <ele>33.008</ele>
        <time>2018-12-27T19:23:20Z</time>
      </trkpt>
      <trkpt lat="37.744810" lon="-122.148650">
        <ele>38.115</ele>
        <time>2018-12-27T19:23:40Z</time>
      </trkpt>
      <trkpt lat="37.744660" lon="-122.148500">
        <ele>39.553</ele>
        <time>2018-12-27T19:24:00Z</time>
      </trkpt>
      <trkpt lat="37.744510" lon="-122.148340">
        <ele>38.498</ele>
        <time>2018-12-27T19:24:20Z</time>
      </trkpt>
      <trkpt lat="37.744350" lon="-122.148160">
        <ele>38.687</ele>
        <time>2018-12-27T19:24:40Z</time>
      </trkpt>
      <trkpt lat="37.744200" lon="-122.147960">
        <ele>36.991</ele>
        <time>2018-12-27T19:25:00Z</time>
      </trkpt>
      <trkpt lat="37.744010" lon="-122.147710">
        <ele>35.977</ele>
        <time>2018-12-27T19:25:20Z</time>
      </trkpt>
      <trkpt lat="37.743650" lon="-122.147200">
        <ele>32.814</ele>
        <time>2018-12-27T19:25:40Z</time>
      </trkpt>
      <trkpt lat="37.743560" lon="-122.147070">
        <ele>32.748</ele>
        <time>2018-12-27T19:26:00Z</time>
      </trkpt>
      <trkpt lat="37.743480" lon="-122.146960">
        <ele>32.244</ele>
        <time>2018-12-27T19:26:20Z</time>
      </trkpt>
      <trkpt lat="37.743240" lon="-122.146620">
        <ele>30.505</ele>
        <time>2018-12-27T19:26:40Z</time>
      </trkpt>
      <trkpt lat="37.743050" lon="-122.146380">
        <ele>30.015</ele>
        <time>2018-12-27T19:27:00Z</time>
      </trkpt>
      <trkpt lat="37.742960" lon="-122.146270">
        <ele>29.808</ele>
        <time>2018-12-27T19:27:20Z</time>
      </trkpt>
      <trkpt lat="37.742860" lon="-122.146140">
        <ele>30.087</ele>
        <time>2018-12-27T19:27:40Z</time>
      </trkpt>
      <trkpt lat="37.742750" lon="-122.146030">
        <ele>29.835</ele>
        <time>2018-12-27T19:28:00Z</time>
      </trkpt>
      <trkpt lat="37.742550" lon="-122.145830">
        <ele>29.540</ele>
        <time>2018-12-27T19:28:20Z</time>
      </trkpt>
      <trkpt lat="37.742350" lon="-122.145640">
        <ele>29.359</ele>
        <time>2018-12-27T19:28:40Z</time>
      </trkpt>
      <trkpt lat="37.742160" lon="-122.145470">
        <ele>29.243</ele>
        <time>2018-12-27T19:29:00Z</time>
      </trkpt>
      <trkpt lat="37.741920" lon="-122.145290">
        <ele>28.949</ele>
        <time>2018-12-27T19:29:20Z</time>
      </trkpt>
      <trkpt lat="37.741650" lon="-122.145090">
        <ele>29.226</ele>
        <time>2018-12-27T19:29:40Z</time>
      </trkpt>
      <trkpt lat="37.741470" lon="-122.144950">
        <ele>28.830</ele>
        <time>2018-12-27T19:30:00Z</time>
      </trkpt>
      <trkpt lat="37.741010" lon="-122.144610">
        <ele>29.062</ele>
        <time>2018-12-27T19:30:20Z</time>
      </trkpt>
      <trkpt lat="37.740700" lon="-122.144380">
        <ele>28.983</ele>
        <time>2018-12-27T19:30:40Z</time>
      </trkpt>
      <trkpt lat="37.740440" lon="-122.144160">
        <ele>29.911</ele>
        <time>2018-12-27T19:31:00Z</time>
      </trkpt>
      <trkpt lat="37.740200" lon="-122.143950">
        <ele>30.608</ele>
        <time>2018-12-27T19:31:20Z</time>
      </trkpt>
      <trkpt lat="37.739980" lon="-122.143770">
        <ele>31.129</ele>
        <time>2018-12-27T19:31:40Z</time>
      </trkpt>
      <trkpt lat="37.739800" lon="-122.143580">
        <ele>31.477</ele>
        <time>2018-12-27T19:32:00Z</time>
      </trkpt>
      <trkpt lat="37.738630" lon="-122.142080">
        <ele>35.982</ele>
        <time>2018-12-27T19:32:20Z</time>
      </trkpt>
      <trkpt lat="37.738350" lon="-122.141740">
        <ele>36.151</ele>
        <time>2018-12-27T19:32:40Z</time>
      </trkpt>
      <trkpt lat="37.738210" lon="-122.141600">
        <ele>36.315</ele>
        <time>2018-12-27T19:33:00Z</time>
      </trkpt>
      <trkpt lat="37.738090" lon="-122.141460">
        <ele>35.751</ele>
        <time>2018-12-27T19:33:20Z</time>
      </trkpt>
      <trkpt lat="37.737840" lon="-122.141200">
        <ele>35.638</ele>
        <time>2018-12-27T19:33:40Z</time>
      </trkpt>
      <trkpt lat="37.737730" lon="-122.141110">
        <ele>32.972</ele>
        <time>2018-12-27T19:34:00Z</time>
      </trkpt>
      <trkpt lat="37.737590" lon="-122.140990">
        <ele>30.965</ele>
        <time>2018-12-27T19:34:20Z</time>
      </trkpt>
      <trkpt lat="37.737460" lon="-122.140920">
        <ele>32.868</ele>
        <time>2018-12-27T19:34:40Z</time>
      </trkpt>
      <trkpt lat="37.737340" lon="-122.140850">
        <ele>34.914</ele>
        <time>2018-12-27T19:35:00Z</time>
      </trkpt>
      <trkpt lat="37.737150" lon="-122.140730">
        <ele>36.308</ele>
        <time>2018-12-27T19:35:20Z</time>
      </trkpt>
      <trkpt lat="37.737020" lon="-122.140660">
        <ele>35.649</ele>
        <time>2018-12-27T19:35:40Z</time>
      </trkpt>
      <trkpt lat="37.736880" lon="-122.140580">
        <ele>34.317</ele>
        <time>2018-12-27T19:36:00Z</time>
      </trkpt>
      <trkpt lat="37.736780" lon="-122.140530">
        <ele>34.332</ele>
        <time>2018-12-27T19:36:20Z</time>
      </trkpt>
      <trkpt lat="37.736690" lon="-122.140490">
        <ele>34.871</ele>
        <time>2018-12-27T19:36:40Z</time>
      </trkpt>
      <trkpt lat="37.736620" lon="-122.140460">
        <ele>35.255</ele>
        <time>2018-12-27T19:37:00Z</time>
      </trkpt>
      <trkpt lat="37.736460" lon="-122.140390">
        <ele>35.641</ele>
        <time>2018-12-27T19:37:20Z</time>
      </trkpt>
      <trkpt lat="37.736140" lon="-122.140290">
        <ele>34.558</ele>
        <time>2018-12-27T19:37:40Z</time>
      </trkpt>
      <trkpt lat="37.735460" lon="-122.140120">
        <ele>34.962</ele>
        <time>2018-12-27T19:38:00Z</time>
      </trkpt>
      <trkpt lat="37.734730" lon="-122.139960">
        <ele>30.824</ele>
        <time>2018-12-27T19:38:20Z</time>
      </trkpt>
      <trkpt lat="37.734620" lon="-122.139950">
        <ele>28.204</ele>
        <time>2018-12-27T19:38:40Z</time>
      </trkpt>
      <trkpt lat="37.734530" lon="-122.139930">
        <ele>28.214</ele>
        <time>2018-12-27T19:39:00Z</time>
      </trkpt>
      <trkpt lat="37.734530" lon="-122.139920">
        <ele>28.308</ele>
        <time>2018-12-27T19:39:20Z</time>
      </trkpt>
      <trkpt lat="37.734420" lon="-122.139900">
        <ele>30.335</ele>
        <time>2018-12-27T19:39:40Z</time>
      </trkpt>
      <trkpt lat="37.734220" lon="-122.139860">
        <ele>33.263</ele>
        <time>2018-12-27T19:40:00Z</time>
      </trkpt>
      <trkpt lat="37.733060" lon="-122.139580">
        <ele>33.668</ele>
        <time>2018-12-27T19:40:20Z</time>
      </trkpt>
      <trkpt lat="37.732280" lon="-122.139390">
        <ele>31.997</ele>
        <time>2018-12-27T19:40:40Z</time>
      </trkpt>
      <trkpt lat="37.731570" lon="-122.139180">
        <ele>31.151</ele>
        <time>2018-12-27T19:41:00Z</time>
      </trkpt>
      <trkpt lat="37.730980" lon="-122.139020">
        <ele>28.857</ele>
        <time>2018-12-27T19:41:20Z</time>
      </trkpt>
      <trkpt lat="37.730600" lon="-122.138910">
        <ele>27.784</ele>
        <time>2018-12-27T19:41:40Z</time>
      </trkpt>
      <trkpt lat="37.729910" lon="-122.138710">
        <ele>31.568</ele>
        <time>2018-12-27T19:42:00Z</time>
      </trkpt>
      <trkpt lat="37.729730" lon="-122.138660">
        <ele>29.921</ele>
        <time>2018-12-27T19:42:20Z</time>
      </trkpt>
      <trkpt lat="37.729690" lon="-122.138640">
        <ele>29.941</ele>
        <time>2018-12-27T19:42:40Z</time>
      </trkpt>
      <trkpt lat="37.729540" lon="-122.138600">
        <ele>30.505</ele>
        <time>2018-12-27T19:43:00Z</time>
      </trkpt>
      <trkpt lat="37.729010" lon="-122.138450">
        <ele>34.008</ele>
        <time>2018-12-27T19:43:20Z</time>
      </trkpt>
      <trkpt lat="37.728920" lon="-122.138430">
        <ele>33.495</ele>
        <time>2018-12-27T19:43:40Z</time>
      </trkpt>
      <trkpt lat="37.728590" lon="-122.138360">
        <ele>32.293</ele>
        <time>2018-12-27T19:44:00Z</time>
      </trkpt>
      <trkpt lat="37.728240" lon="-122.138290">
        <ele>33.238</ele>
        <time>2018-12-27T19:44:20Z</time>
      </trkpt>
      <trkpt lat="37.727610" lon="-122.138190">
        <ele>33.037</ele>
        <time>2018-12-27T19:44:40Z</time>
      </trkpt>
      <trkpt lat="37.727000" lon="-122.138090">
        <ele>31.631</ele>
        <time>2018-12-27T19:45:00Z</time>
      </trkpt>
      <trkpt lat="37.726220" lon="-122.137970">
        <ele>30.577</ele>
        <time>2018-12-27T19:45:20Z</time>
      </trkpt>
      <trkpt lat="37.726030" lon="-122.137940">
        <ele>30.584</ele>
        <time>2018-12-27T19:45:40Z</time>
      </trkpt>
      <trkpt lat="37.725790" lon="-122.137890">
        <ele>30.468</ele>
        <time>2018-12-27T19:46:00Z</time>
      </trkpt>
      <trkpt lat="37.725460" lon="-122.137810">
        <ele>29.414</ele>
        <time>2018-12-27T19:46:20Z</time>
      </trkpt>
      <trkpt lat="37.725150" lon="-122.137700">
        <ele>28.154</ele>
        <time>2018-12-27T19:46:40Z</time>
      </trkpt>
      <trkpt lat="37.724980" lon="-122.137640">
        <ele>28.109</ele>
        <time>2018-12-27T19:47:00Z</time>
      </trkpt>
      <trkpt lat="37.724720" lon="-122.137530">
        <ele>27.008</ele>
        <time>2018-12-27T19:47:20Z</time>
      </trkpt>
      <trkpt lat="37.724550" lon="-122.137450">
        <ele>26.354</ele>
        <time>2018-12-27T19:47:40Z</time>
      </trkpt>
      <trkpt lat="37.724190" lon="-122.137260">
        <ele>25.542</ele>
        <time>2018-12-27T19:48:00Z</time>
      </trkpt>
      <trkpt lat="37.723910" lon="-122.137080">
        <ele>24.927</ele>
        <time>2018-12-27T19:48:20Z</time>
      </trkpt>
      <trkpt lat="37.723840" lon="-122.137040">
        <ele>24.876</ele>
        <time>2018-12-27T19:48:40Z</time>
      </trkpt>
      <trkpt lat="37.723360" lon="-122.136720">
        <ele>24.360</ele>
        <time>2018-12-27T19:49:00Z</time>
      </trkpt>
      <trkpt lat="37.722780" lon="-122.136270">
        <ele>23.816</ele>
        <time>2018-12-27T19:49:20Z</time>
      </trkpt>
      <trkpt lat="37.722290" lon="-122.135890">
        <ele>23.743</ele>
        <time>2018-12-27T19:49:40Z</time>
      </trkpt>
      <trkpt lat="37.722290" lon="-122.135880">
        <ele>23.737</ele>
        <time>2018-12-27T19:50:00Z</time>
      </trkpt>
      <trkpt lat="37.722270" lon="-122.135870">
        <ele>23.885</ele>
        <time>2018-12-27T19:50:20Z</time>
      </trkpt>
      <trkpt lat="37.722190" lon="-122.135810">
        <ele>23.989</ele>
        <time>2018-12-27T19:50:40Z</time>
      </trkpt>
      <trkpt lat="37.721550" lon="-122.135330">
        <ele>25.917</ele>
        <time>2018-12-27T19:51:00Z</time>
      </trkpt>
      <trkpt lat="37.721260" lon="-122.135100">
        <ele>26.808</ele>
        <time>2018-12-27T19:51:20Z</time>
      </trkpt>
      <trkpt lat="37.720800" lon="-122.134760">
        <ele>28.271</ele>
        <time>2018-12-27T19:51:40Z</time>
      </trkpt>
      <trkpt lat="37.720240" lon="-122.134380">
        <ele>29.139</ele>
        <time>2018-12-27T19:52:00Z</time>
      </trkpt>
      <trkpt lat="37.719770" lon="-122.134070">
        <ele>28.774</ele>
        <time>2018-12-27T19:52:20Z</time>
      </trkpt>
      <trkpt lat="37.719170" lon="-122.133720">
        <ele>27.993</ele>
        <time>2018-12-27T19:52:40Z</time>
      </trkpt>
      <trkpt lat="37.718720" lon="-122.133460">
        <ele>27.097</ele>
        <time>2018-12-27T19:53:00Z</time>
      </trkpt>
      <trkpt lat="37.718090" lon="-122.133140">
        <ele>25.523</ele>
        <time>2018-12-27T19:53:20Z</time>
      </trkpt>
      <trkpt lat="37.717580" lon="-122.132890">
        <ele>24.430</ele>
        <time>2018-12-27T19:53:40Z</time>
      </trkpt>
      <trkpt lat="37.717070" lon="-122.132660">
        <ele>23.144</ele>
        <time>2018-12-27T19:54:00Z</time>
      </trkpt>
      <trkpt lat="37.716410" lon="-122.132360">
        <ele>22.545</ele>
        <time>2018-12-27T19:54:20Z</time>
      </trkpt>
      <trkpt lat="37.715800" lon="-122.132080">
        <ele>22.647</ele>
        <time>2018-12-27T19:54:40Z</time>
      </trkpt>
      <trkpt lat="37.715640" lon="-122.132010">
        <ele>23.011</ele>
        <time>2018-12-27T19:55:00Z</time>
      </trkpt>
      <trkpt lat="37.715270" lon="-122.131820">
        <ele>22.708</ele>
        <time>2018-12-27T19:55:20Z</time>
      </trkpt>
      <trkpt lat="37.714840" lon="-122.131580">
        <ele>22.137</ele>
        <time>2018-12-27T19:55:40Z</time>
      </trkpt>
      <trkpt lat="37.714540" lon="-122.131380">
        <ele>22.285</ele>
        <time>2018-12-27T19:56:00Z</time>
      </trkpt>
      <trkpt lat="37.714200" lon="-122.131130">
        <ele>22.570</ele>
        <time>2018-12-27T19:56:20Z</time>
      </trkpt>
      <trkpt lat="37.713870" lon="-122.130870">
        <ele>21.979</ele>
        <time>2018-12-27T19:56:40Z</time>
      </trkpt>
      <trkpt lat="37.713520" lon="-122.130560">
        <ele>21.913</ele>
        <time>2018-12-27T19:57:00Z</time>
      </trkpt>
      <trkpt lat="37.713280" lon="-122.130320">
        <ele>22.129</ele>
        <time>2018-12-27T19:57:20Z</time>
      </trkpt>
      <trkpt lat="37.713080" lon="-122.130110">
        <ele>21.726</ele>
        <time>2018-12-27T19:57:40Z</time>
      </trkpt>
      <trkpt lat="37.712930" lon="-122.129940">
        <ele>21.820</ele>
        <time>2018-12-27T19:58:00Z</time>
      </trkpt>
      <trkpt lat="37.712780" lon="-122.129760">
        <ele>21.933</ele>
        <time>2018-12-27T19:58:20Z</time>
      </trkpt>
      <trkpt lat="37.712560" lon="-122.129490">
        <ele>21.923</ele>
        <time>2018-12-27T19:58:40Z</time>
      </trkpt>
      <trkpt lat="37.712090" lon="-122.128830">
        <ele>20.815</ele>
        <time>2018-12-27T19:59:00Z</time>
      </trkpt>
      <trkpt lat="37.711850" lon="-122.128430">
        <ele>20.708</ele>
        <time>2018-12-27T19:59:20Z</time>
      </trkpt>
      <trkpt lat="37.711720" lon="-122.128200">
        <ele>19.126</ele>
        <time>2018-12-27T19:59:40Z</time>
      </trkpt>
      <trkpt lat="37.711590" lon="-122.127940">
        <ele>19.914</ele>
        <time>2018-12-27T20:00:00Z</time>
      </trkpt>
      <trkpt lat="37.711160" lon="-122.127090">
        <ele>17.619</ele>
        <time>2018-12-27T20:00:20Z</time>
      </trkpt>
      <trkpt lat="37.710730" lon="-122.126160">
        <ele>16.038</ele>
        <time>2018-12-27T20:00:40Z</time>
      </trkpt>
      <trkpt lat="37.710420" lon="-122.125520">
        <ele>14.822</ele>
        <time>2018-12-27T20:01:00Z</time>
      </trkpt>
      <trkpt lat="37.710110" lon="-122.124990">
        <ele>13.978</ele>
        <time>2018-12-27T20:01:20Z</time>
      </trkpt>
      <trkpt lat="37.709910" lon="-122.124730">
        <ele>13.615</ele>
        <time>2018-12-27T20:01:40Z</time>
      </trkpt>
      <trkpt lat="37.709670" lon="-122.124360">
        <ele>13.129</ele>
        <time>2018-12-27T20:02:00Z</time>
      </trkpt>
      <trkpt lat="37.709440" lon="-122.124040">
        <ele>12.428</ele>
        <time>2018-12-27T20:02:20Z</time>
      </trkpt>
      <trkpt lat="37.708410" lon="-122.122740">
        <ele>12.489</ele>
        <time>2018-12-27T20:02:40Z</time>
      </trkpt>
      <trkpt lat="37.708370" lon="-122.122700">
        <ele>12.417</ele>
        <time>2018-12-27T20:03:00Z</time>
      </trkpt>
      <trkpt lat="37.708310" lon="-122.122620">
        <ele>12.008</ele>
        <time>2018-12-27T20:03:20Z</time>
      </trkpt>
      <trkpt lat="37.708280" lon="-122.122580">
        <ele>12.165</ele>
        <time>2018-12-27T20:03:40Z</time>
      </trkpt>
      <trkpt lat="37.707830" lon="-122.121990">
        <ele>13.813</ele>
        <time>2018-12-27T20:04:00Z</time>
      </trkpt>
      <trkpt lat="37.707440" lon="-122.121470">
        <ele>15.278</ele>
        <time>2018-12-27T20:04:20Z</time>
      </trkpt>
      <trkpt lat="37.707100" lon="-122.120950">
        <ele>17.137</ele>
        <time>2018-12-27T20:04:40Z</time>
      </trkpt>
      <trkpt lat="37.706880" lon="-122.120530">
        <ele>18.361</ele>
        <time>2018-12-27T20:05:00Z</time>
      </trkpt>
      <trkpt lat="37.706520" lon="-122.119750">
        <ele>20.287</ele>
        <time>2018-12-27T20:05:20Z</time>
      </trkpt>
      <trkpt lat="37.706200" lon="-122.119010">
        <ele>22.724</ele>
        <time>2018-12-27T20:05:40Z</time>
      </trkpt>
      <trkpt lat="37.705920" lon="-122.118390">
        <ele>24.758</ele>
        <time>2018-12-27T20:06:00Z</time>
      </trkpt>
      <trkpt lat="37.705550" lon="-122.117590">
        <ele>27.085</ele>
        <time>2018-12-27T20:06:20Z</time>
      </trkpt>
      <trkpt lat="37.705230" lon="-122.116970">
        <ele>28.889</ele>
        <time>2018-12-27T20:06:40Z</time>
      </trkpt>
      <trkpt lat="37.705150" lon="-122.116800">
        <ele>29.017</ele>
        <time>2018-12-27T20:07:00Z</time>
      </trkpt>
      <trkpt lat="37.705150" lon="-122.116790">
        <ele>29.108</ele>
        <time>2018-12-27T20:07:20Z</time>
      </trkpt>
      <trkpt lat="37.705140" lon="-122.116780">
        <ele>29.161</ele>
        <time>2018-12-27T20:07:40Z</time>
      </trkpt>
      <trkpt lat="37.705110" lon="-122.116720">
        <ele>29.659</ele>
        <time>2018-12-27T20:08:00Z</time>
      </trkpt>
      <trkpt lat="37.704620" lon="-122.115840">
        <ele>31.314</ele>
        <time>2018-12-27T20:08:20Z</time>
      </trkpt>
      <trkpt lat="37.704400" lon="-122.115470">
        <ele>32.473</ele>
        <time>2018-12-27T20:08:40Z</time>
      </trkpt>
      <trkpt lat="37.703410" lon="-122.113880">
        <ele>32.917</ele>
        <time>2018-12-27T20:09:00Z</time>
      </trkpt>
      <trkpt lat="37.703030" lon="-122.113270">
        <ele>32.513</ele>
        <time>2018-12-27T20:09:20Z</time>
      </trkpt>
      <trkpt lat="37.702610" lon="-122.112610">
        <ele>32.610</ele>
        <time>2018-12-27T20:09:40Z</time>
      </trkpt>
      <trkpt lat="37.702370" lon="-122.112240">
        <ele>33.014</ele>
        <time>2018-12-27T20:10:00Z</time>
      </trkpt>
      <trkpt lat="37.701790" lon="-122.111280">
        <ele>33.463</ele>
        <time>2018-12-27T20:10:20Z</time>
      </trkpt>
      <trkpt lat="37.701090" lon="-122.110180">
        <ele>36.144</ele>
        <time>2018-12-27T20:10:40Z</time>
      </trkpt>
      <trkpt lat="37.700790" lon="-122.109710">
        <ele>36.818</ele>
        <time>2018-12-27T20:11:00Z</time>
      </trkpt>
      <trkpt lat="37.700540" lon="-122.109350">
        <ele>37.908</ele>
        <time>2018-12-27T20:11:20Z</time>
      </trkpt>
      <trkpt lat="37.700380" lon="-122.109140">
        <ele>37.979</ele>
        <time>2018-12-27T20:11:40Z</time>
      </trkpt>
      <trkpt lat="37.699960" lon="-122.108620">
        <ele>36.617</ele>
        <time>2018-12-27T20:12:00Z</time>
      </trkpt>
      <trkpt lat="37.699660" lon="-122.108290">
        <ele>33.572</ele>
        <time>2018-12-27T20:12:20Z</time>
      </trkpt>
      <trkpt lat="37.699330" lon="-122.107970">
        <ele>38.961</ele>
        <time>2018-12-27T20:12:40Z</time>
      </trkpt>
      <trkpt lat="37.698610" lon="-122.107320">
        <ele>40.615</ele>
        <time>2018-12-27T20:13:00Z</time>
      </trkpt>
      <trkpt lat="37.698080" lon="-122.106830">
        <ele>40.941</ele>
        <time>2018-12-27T20:13:20Z</time>
      </trkpt>
      <trkpt lat="37.697460" lon="-122.106290">
        <ele>41.718</ele>
        <time>2018-12-27T20:13:40Z</time>
      </trkpt>
      <trkpt lat="37.696660" lon="-122.105560">
        <ele>43.362</ele>
        <time>2018-12-27T20:14:00Z</time>
      </trkpt>
      <trkpt lat="37.695860" lon="-122.104820">
        <ele>43.736</ele>
        <time>2018-12-27T20:14:20Z</time>
      </trkpt>
      <trkpt lat="37.695490" lon="-122.104470">
        <ele>39.617</ele>
        <time>2018-12-27T20:14:40Z</time>
      </trkpt>
      <trkpt lat="37.695250" lon="-122.104270">
        <ele>42.418</ele>
        <time>2018-12-27T20:15:00Z</time>
      </trkpt>
      <trkpt lat="37.694710" lon="-122.103780">
        <ele>45.908</ele>
        <time>2018-12-27T20:15:20Z</time>
      </trkpt>
      <trkpt lat="37.693570" lon="-122.102750">
        <ele>48.156</ele>
        <time>2018-12-27T20:15:40Z</time>
      </trkpt>
      <trkpt lat="37.693290" lon="-122.102500">
        <ele>48.934</ele>
        <time>2018-12-27T20:16:00Z</time>
      </trkpt>
      <trkpt lat="37.693040" lon="-122.102270">
        <ele>49.999</ele>
        <time>2018-12-27T20:16:20Z</time>
      </trkpt>
      <trkpt lat="37.692360" lon="-122.101660">
        <ele>54.038</ele>
        <time>2018-12-27T20:16:40Z</time>
      </trkpt>
      <trkpt lat="37.692160" lon="-122.101480">
        <ele>55.292</ele>
        <time>2018-12-27T20:17:00Z</time>
      </trkpt>
      <trkpt lat="37.692000" lon="-122.101310">
        <ele>55.398</ele>
        <time>2018-12-27T20:17:20Z</time>
      </trkpt>
      <trkpt lat="37.691810" lon="-122.101090">
        <ele>57.265</ele>
        <time>2018-12-27T20:17:40Z</time>
      </trkpt>
      <trkpt lat="37.691570" lon="-122.100800">
        <ele>57.729</ele>
        <time>2018-12-27T20:18:00Z</time>
      </trkpt>
      <trkpt lat="37.691420" lon="-122.100590">
        <ele>57.211</ele>
        <time>2018-12-27T20:18:20Z</time>
      </trkpt>
      <trkpt lat="37.691210" lon="-122.100270">
        <ele>58.321</ele>
        <time>2018-12-27T20:18:40Z</time>
      </trkpt>
      <trkpt lat="37.691090" lon="-122.100070">
        <ele>55.503</ele>
        <time>2018-12-27T20:19:00Z</time>
      </trkpt>
      <trkpt lat="37.690950" lon="-122.099820">
        <ele>49.008</ele>
        <time>2018-12-27T20:19:20Z</time>
      </trkpt>
      <trkpt lat="37.690850" lon="-122.099640">
        <ele>47.974</ele>
        <time>2018-12-27T20:19:40Z</time>
      </trkpt>
      <trkpt lat="37.690780" lon="-122.099480">
        <ele>46.422</ele>
        <time>2018-12-27T20:20:00Z</time>
      </trkpt>
      <trkpt lat="37.690660" lon="-122.099230">
        <ele>43.847</ele>
        <time>2018-12-27T20:20:20Z</time>
      </trkpt>
      <trkpt lat="37.690550" lon="-122.098950">
        <ele>42.746</ele>
        <time>2018-12-27T20:20:40Z</time>
      </trkpt>
      <trkpt lat="37.690430" lon="-122.098630">
        <ele>41.940</ele>
        <time>2018-12-27T20:21:00Z</time>
      </trkpt>
      <trkpt lat="37.690360" lon="-122.098440">
        <ele>42.356</ele>
        <time>2018-12-27T20:21:20Z</time>
      </trkpt>
      <trkpt lat="37.690290" lon="-122.098200">
        <ele>43.093</ele>
        <time>2018-12-27T20:21:40Z</time>
      </trkpt>
      <trkpt lat="37.690230" lon="-122.097970">
        <ele>43.887</ele>
        <time>2018-12-27T20:22:00Z</time>
      </trkpt>
      <trkpt lat="37.690170" lon="-122.097740">
        <ele>45.123</ele>
        <time>2018-12-27T20:22:20Z</time>
      </trkpt>
      <trkpt lat="37.690070" lon="-122.097290">
        <ele>46.583</ele>
        <time>2018-12-27T20:22:40Z</time>
      </trkpt>
      <trkpt lat="37.690040" lon="-122.097080">
        <ele>47.511</ele>
        <time>2018-12-27T20:23:00Z</time>
      </trkpt>
      <trkpt lat="37.690000" lon="-122.096810">
        <ele>46.608</ele>
        <time>2018-12-27T20:23:20Z</time>
      </trkpt>
      <trkpt lat="37.689980" lon="-122.096590">
        <ele>45.795</ele>
        <time>2018-12-27T20:23:40Z</time>
      </trkpt>
      <trkpt lat="37.689960" lon="-122.096360">
        <ele>46.133</ele>
        <time>2018-12-27T20:24:00Z</time>
      </trkpt>
      <trkpt lat="37.689940" lon="-122.096020">
        <ele>47.588</ele>
        <time>2018-12-27T20:24:20Z</time>
      </trkpt>
      <trkpt lat="37.689930" lon="-122.095790">
        <ele>43.847</ele>
        <time>2018-12-27T20:24:40Z</time>
      </trkpt>
      <trkpt lat="37.689930" lon="-122.095670">
        <ele>41.841</ele>
        <time>2018-12-27T20:25:00Z</time>
      </trkpt>
      <trkpt lat="37.689940" lon="-122.095300">
        <ele>45.177</ele>
        <time>2018-12-27T20:25:20Z</time>
      </trkpt>
      <trkpt lat="37.689970" lon="-122.094940">
        <ele>49.724</ele>
        <time>2018-12-27T20:25:40Z</time>
      </trkpt>
      <trkpt lat="37.690070" lon="-122.093990">
        <ele>50.818</ele>
        <time>2018-12-27T20:26:00Z</time>
      </trkpt>
      <trkpt lat="37.690100" lon="-122.093740">
        <ele>50.696</ele>
        <time>2018-12-27T20:26:20Z</time>
      </trkpt>
      <trkpt lat="37.690240" lon="-122.092350">
        <ele>59.331</ele>
        <time>2018-12-27T20:26:40Z</time>
      </trkpt>
      <trkpt lat="37.690340" lon="-122.091140">
        <ele>60.924</ele>
        <time>2018-12-27T20:27:00Z</time>
      </trkpt>
      <trkpt lat="37.690360" lon="-122.090950">
        <ele>61.008</ele>
        <time>2018-12-27T20:27:20Z</time>
      </trkpt>
      <trkpt lat="37.690370" lon="-122.090900">
        <ele>61.092</ele>
        <time>2018-12-27T20:27:40Z</time>
      </trkpt>
      <trkpt lat="37.690450" lon="-122.090700">
        <ele>60.880</ele>
        <time>2018-12-27T20:28:00Z</time>
      </trkpt>
      <trkpt lat="37.690460" lon="-122.090520">
        <ele>60.975</ele>
        <time>2018-12-27T20:28:20Z</time>
      </trkpt>
      <trkpt lat="37.690460" lon="-122.090440">
        <ele>60.924</ele>
        <time>2018-12-27T20:28:40Z</time>
      </trkpt>
      <trkpt lat="37.690460" lon="-122.089870">
        <ele>60.828</ele>
        <time>2018-12-27T20:29:00Z</time>
      </trkpt>
      <trkpt lat="37.690470" lon="-122.089470">
        <ele>60.484</ele>
        <time>2018-12-27T20:29:20Z</time>
      </trkpt>
      <trkpt lat="37.690480" lon="-122.089040">
        <ele>53.641</ele>
        <time>2018-12-27T20:29:40Z</time>
      </trkpt>
      <trkpt lat="37.690480" lon="-122.088730">
        <ele>54.325</ele>
        <time>2018-12-27T20:30:00Z</time>
      </trkpt>
      <trkpt lat="37.690490" lon="-122.088320">
        <ele>59.741</ele>
        <time>2018-12-27T20:30:20Z</time>
      </trkpt>
      <trkpt lat="37.690490" lon="-122.088310">
        <ele>59.781</ele>
        <time>2018-12-27T20:30:40Z</time>
      </trkpt>
      <trkpt lat="37.690490" lon="-122.087590">
        <ele>58.609</ele>
        <time>2018-12-27T20:31:00Z</time>
      </trkpt>
      <trkpt lat="37.690490" lon="-122.087030">
        <ele>57.608</ele>
        <time>2018-12-27T20:31:20Z</time>
      </trkpt>
      <trkpt lat="37.690500" lon="-122.086410">
        <ele>56.237</ele>
        <time>2018-12-27T20:31:40Z</time>
      </trkpt>
      <trkpt lat="37.690510" lon="-122.085820">
        <ele>54.885</ele>
        <time>2018-12-27T20:32:00Z</time>
      </trkpt>
      <trkpt lat="37.690510" lon="-122.085780">
        <ele>54.790</ele>
        <time>2018-12-27T20:32:20Z</time>
      </trkpt>
      <trkpt lat="37.690510" lon="-122.085010">
        <ele>52.769</ele>
        <time>2018-12-27T20:32:40Z</time>
      </trkpt>
      <trkpt lat="37.690520" lon="-122.083900">
        <ele>50.193</ele>
        <time>2018-12-27T20:33:00Z</time>
      </trkpt>
      <trkpt lat="37.690510" lon="-122.083180">
        <ele>48.839</ele>
        <time>2018-12-27T20:33:20Z</time>
      </trkpt>
      <trkpt lat="37.690510" lon="-122.082760">
        <ele>48.156</ele>
        <time>2018-12-27T20:33:40Z</time>
      </trkpt>
      <trkpt lat="37.690520" lon="-122.082120">
        <ele>47.540</ele>
        <time>2018-12-27T20:34:00Z</time>
      </trkpt>
      <trkpt lat="37.690520" lon="-122.081110">
        <ele>47.145</ele>
        <time>2018-12-27T20:34:20Z</time>
      </trkpt>
      <trkpt lat="37.690530" lon="-122.080130">
        <ele>47.547</ele>
        <time>2018-12-27T20:34:40Z</time>
      </trkpt>
      <trkpt lat="37.690540" lon="-122.079180">
        <ele>48.711</ele>
        <time>2018-12-27T20:35:00Z</time>
      </trkpt>
      <trkpt lat="37.690540" lon="-122.078540">
        <ele>50.008</ele>
        <time>2018-12-27T20:35:20Z</time>
      </trkpt>
      <trkpt lat="37.690550" lon="-122.078010">
        <ele>51.067</ele>
        <time>2018-12-27T20:35:40Z</time>
      </trkpt>
      <trkpt lat="37.690550" lon="-122.077660">
        <ele>51.745</ele>
        <time>2018-12-27T20:36:00Z</time>
      </trkpt>
      <trkpt lat="37.690550" lon="-122.076880">
        <ele>52.830</ele>
        <time>2018-12-27T20:36:20Z</time>
      </trkpt>
      <trkpt lat="37.690560" lon="-122.076170">
        <ele>53.619</ele>
        <time>2018-12-27T20:36:40Z</time>
      </trkpt>
      <trkpt lat="37.690570" lon="-122.075330">
        <ele>54.743</ele>
        <time>2018-12-27T20:37:00Z</time>
      </trkpt>
      <trkpt lat="37.690580" lon="-122.074380">
        <ele>56.069</ele>
        <time>2018-12-27T20:37:20Z</time>
      </trkpt>
      <trkpt lat="37.690580" lon="-122.073690">
        <ele>49.496</ele>
        <time>2018-12-27T20:37:40Z</time>
      </trkpt>
      <trkpt lat="37.690590" lon="-122.072990">
        <ele>57.830</ele>
        <time>2018-12-27T20:38:00Z</time>
      </trkpt>
      <trkpt lat="37.690610" lon="-122.072320">
        <ele>58.765</ele>
        <time>2018-12-27T20:38:20Z</time>
      </trkpt>
      <trkpt lat="37.690620" lon="-122.071980">
        <ele>58.768</ele>
        <time>2018-12-27T20:38:40Z</time>
      </trkpt>
      <trkpt lat="37.690640" lon="-122.071680">
        <ele>58.214</ele>
        <time>2018-12-27T20:39:00Z</time>
      </trkpt>
      <trkpt lat="37.690650" lon="-122.071450">
        <ele>57.908</ele>
        <time>2018-12-27T20:39:20Z</time>
      </trkpt>
      <trkpt lat="37.690670" lon="-122.071080">
        <ele>57.639</ele>
        <time>2018-12-27T20:39:40Z</time>
      </trkpt>
      <trkpt lat="37.690720" lon="-122.070500">
        <ele>57.327</ele>
        <time>2018-12-27T20:40:00Z</time>
      </trkpt>
      <trkpt lat="37.690750" lon="-122.070260">
        <ele>57.482</ele>
        <time>2018-12-27T20:40:20Z</time>
      </trkpt>
      <trkpt lat="37.690780" lon="-122.070010">
        <ele>57.481</ele>
        <time>2018-12-27T20:40:40Z</time>
      </trkpt>
      <trkpt lat="37.690820" lon="-122.069690">
        <ele>57.365</ele>
        <time>2018-12-27T20:41:00Z</time>
      </trkpt>
      <trkpt lat="37.690880" lon="-122.069190">
        <ele>56.751</ele>
        <time>2018-12-27T20:41:20Z</time>
      </trkpt>
      <trkpt lat="37.690920" lon="-122.068960">
        <ele>56.448</ele>
        <time>2018-12-27T20:41:40Z</time>
      </trkpt>
      <trkpt lat="37.690990" lon="-122.068510">
        <ele>56.322</ele>
        <time>2018-12-27T20:42:00Z</time>
      </trkpt>
      <trkpt lat="37.691010" lon="-122.068450">
        <ele>56.335</ele>
        <time>2018-12-27T20:42:20Z</time>
      </trkpt>
      <trkpt lat="37.691050" lon="-122.068220">
        <ele>56.386</ele>
        <time>2018-12-27T20:42:40Z</time>
      </trkpt>
      <trkpt lat="37.691080" lon="-122.068080">
        <ele>56.314</ele>
        <time>2018-12-27T20:43:00Z</time>
      </trkpt>
      <trkpt lat="37.691120" lon="-122.067840">
        <ele>56.308</ele>
        <time>2018-12-27T20:43:20Z</time>
      </trkpt>
      <trkpt lat="37.691180" lon="-122.067530">
        <ele>56.166</ele>
        <time>2018-12-27T20:43:40Z</time>
      </trkpt>
      <trkpt lat="37.691280" lon="-122.067090">
        <ele>55.684</ele>
        <time>2018-12-27T20:44:00Z</time>
      </trkpt>
      <trkpt lat="37.691350" lon="-122.066790">
        <ele>55.879</ele>
        <time>2018-12-27T20:44:20Z</time>
      </trkpt>
      <trkpt lat="37.691390" lon="-122.066600">
        <ele>56.158</ele>
        <time>2018-12-27T20:44:40Z</time>
      </trkpt>
      <trkpt lat="37.691470" lon="-122.066310">
        <ele>55.912</ele>
        <time>2018-12-27T20:45:00Z</time>
      </trkpt>
      <trkpt lat="37.691570" lon="-122.065920">
        <ele>56.088</ele>
        <time>2018-12-27T20:45:20Z</time>
      </trkpt>
      <trkpt lat="37.691770" lon="-122.065230">
        <ele>56.355</ele>
        <time>2018-12-27T20:45:40Z</time>
      </trkpt>
      <trkpt lat="37.692030" lon="-122.064280">
        <ele>57.969</ele>
        <time>2018-12-27T20:46:00Z</time>
      </trkpt>
      <trkpt lat="37.692230" lon="-122.063560">
        <ele>58.941</ele>
        <time>2018-12-27T20:46:20Z</time>
      </trkpt>
      <trkpt lat="37.692450" lon="-122.062760">
        <ele>60.881</ele>
        <time>2018-12-27T20:46:40Z</time>
      </trkpt>
      <trkpt lat="37.692590" lon="-122.062280">
        <ele>62.309</ele>
        <time>2018-12-27T20:47:00Z</time>
      </trkpt>
      <trkpt lat="37.692730" lon="-122.061780">
        <ele>63.408</ele>
        <time>2018-12-27T20:47:20Z</time>
      </trkpt>
      <trkpt lat="37.692940" lon="-122.061020">
        <ele>65.577</ele>
        <time>2018-12-27T20:47:40Z</time>
      </trkpt>
      <trkpt lat="37.693070" lon="-122.060530">
        <ele>66.515</ele>
        <time>2018-12-27T20:48:00Z</time>
      </trkpt>
      <trkpt lat="37.693160" lon="-122.060230">
        <ele>59.280</ele>
        <time>2018-12-27T20:48:20Z</time>
      </trkpt>
      <trkpt lat="37.693240" lon="-122.059910">
        <ele>54.989</ele>
        <time>2018-12-27T20:48:40Z</time>
      </trkpt>
      <trkpt lat="37.693280" lon="-122.059770">
        <ele>57.463</ele>
        <time>2018-12-27T20:49:00Z</time>
      </trkpt>
      <trkpt lat="37.693310" lon="-122.059610">
        <ele>63.139</ele>
        <time>2018-12-27T20:49:20Z</time>
      </trkpt>
      <trkpt lat="37.693340" lon="-122.059450">
        <ele>66.496</ele>
        <time>2018-12-27T20:49:40Z</time>
      </trkpt>
      <trkpt lat="37.693380" lon="-122.059260">
        <ele>69.890</ele>
        <time>2018-12-27T20:50:00Z</time>
      </trkpt>
      <trkpt lat="37.693410" lon="-122.059100">
        <ele>70.167</ele>
        <time>2018-12-27T20:50:20Z</time>
      </trkpt>
      <trkpt lat="37.693440" lon="-122.058930">
        <ele>70.381</ele>
        <time>2018-12-27T20:50:40Z</time>
      </trkpt>
      <trkpt lat="37.693460" lon="-122.058800">
        <ele>70.719</ele>
        <time>2018-12-27T20:51:00Z</time>
      </trkpt>
      <trkpt lat="37.693480" lon="-122.058650">
        <ele>71.008</ele>
        <time>2018-12-27T20:51:20Z</time>
      </trkpt>
      <trkpt lat="37.693500" lon="-122.058480">
        <ele>71.219</ele>
        <time>2018-12-27T20:51:40Z</time>
      </trkpt>
      <trkpt lat="37.693520" lon="-122.058310">
        <ele>71.587</ele>
        <time>2018-12-27T20:52:00Z</time>
      </trkpt>
      <trkpt lat="37.693540" lon="-122.058150">
        <ele>71.862</ele>
        <time>2018-12-27T20:52:20Z</time>
      </trkpt>
      <trkpt lat="37.693550" lon="-122.057980">
        <ele>72.031</ele>
        <time>2018-12-27T20:52:40Z</time>
      </trkpt>
      <trkpt lat="37.693560" lon="-122.057810">
        <ele>71.215</ele>
        <time>2018-12-27T20:53:00Z</time>
      </trkpt>
      <trkpt lat="37.693570" lon="-122.057640">
        <ele>69.911</ele>
        <time>2018-12-27T20:53:20Z</time>
      </trkpt>
      <trkpt lat="37.693580" lon="-122.057500">
        <ele>68.178</ele>
        <time>2018-12-27T20:53:40Z</time>
      </trkpt>
      <trkpt lat="37.693580" lon="-122.057350">
        <ele>66.172</ele>
        <time>2018-12-27T20:54:00Z</time>
      </trkpt>
      <trkpt lat="37.693590" lon="-122.057210">
        <ele>66.168</ele>
        <time>2018-12-27T20:54:20Z</time>
      </trkpt>
      <trkpt lat="37.693600" lon="-122.057010">
        <ele>66.842</ele>
        <time>2018-12-27T20:54:40Z</time>
      </trkpt>
      <trkpt lat="37.693600" lon="-122.056860">
        <ele>68.226</ele>
        <time>2018-12-27T20:55:00Z</time>
      </trkpt>
      <trkpt lat="37.693590" lon="-122.056680">
        <ele>70.508</ele>
        <time>2018-12-27T20:55:20Z</time>
      </trkpt>
      <trkpt lat="37.693590" lon="-122.056520">
        <ele>72.639</ele>
        <time>2018-12-27T20:55:40Z</time>
      </trkpt>
      <trkpt lat="37.693590" lon="-122.056370">
        <ele>73.387</ele>
        <time>2018-12-27T20:56:00Z</time>
      </trkpt>
      <trkpt lat="37.693570" lon="-122.056090">
        <ele>74.952</ele>
        <time>2018-12-27T20:56:20Z</time>
      </trkpt>
      <trkpt lat="37.693540" lon="-122.055700">
        <ele>76.321</ele>
        <time>2018-12-27T20:56:40Z</time>
      </trkpt>
      <trkpt lat="37.693510" lon="-122.055450">
        <ele>76.935</ele>
        <time>2018-12-27T20:57:00Z</time>
      </trkpt>
      <trkpt lat="37.693480" lon="-122.055190">
        <ele>77.591</ele>
        <time>2018-12-27T20:57:20Z</time>
      </trkpt>
      <trkpt lat="37.693440" lon="-122.054870">
        <ele>78.018</ele>
        <time>2018-12-27T20:57:40Z</time>
      </trkpt>
      <trkpt lat="37.693400" lon="-122.054520">
        <ele>78.712</ele>
        <time>2018-12-27T20:58:00Z</time>
      </trkpt>
      <trkpt lat="37.693350" lon="-122.054020">
        <ele>79.955</ele>
        <time>2018-12-27T20:58:20Z</time>
      </trkpt>
      <trkpt lat="37.693290" lon="-122.053540">
        <ele>81.007</ele>
        <time>2018-12-27T20:58:40Z</time>
      </trkpt>
      <trkpt lat="37.693280" lon="-122.053370">
        <ele>81.317</ele>
        <time>2018-12-27T20:59:00Z</time>
      </trkpt>
      <trkpt lat="37.693260" lon="-122.053220">
        <ele>81.608</ele>
        <time>2018-12-27T20:59:20Z</time>
      </trkpt>
      <trkpt lat="37.693250" lon="-122.053050">
        <ele>81.968</ele>
        <time>2018-12-27T20:59:40Z</time>
      </trkpt>
      <trkpt lat="37.693240" lon="-122.052890">
        <ele>82.256</ele>
        <time>2018-12-27T21:00:00Z</time>
      </trkpt>
      <trkpt lat="37.693230" lon="-122.052760">
        <ele>82.411</ele>
        <time>2018-12-27T21:00:20Z</time>
      </trkpt>
      <trkpt lat="37.693220" lon="-122.052530">
        <ele>82.760</ele>
        <time>2018-12-27T21:00:40Z</time>
      </trkpt>
      <trkpt lat="37.693220" lon="-122.052250">
        <ele>83.254</ele>
        <time>2018-12-27T21:01:00Z</time>
      </trkpt>
      <trkpt lat="37.693220" lon="-122.052110">
        <ele>83.520</ele>
        <time>2018-12-27T21:01:20Z</time>
      </trkpt>
      <trkpt lat="37.693220" lon="-122.051930">
        <ele>83.827</ele>
        <time>2018-12-27T21:01:40Z</time>
      </trkpt>
      <trkpt lat="37.693220" lon="-122.051790">
        <ele>84.141</ele>
        <time>2018-12-27T21:02:00Z</time>
      </trkpt>
      <trkpt lat="37.693230" lon="-122.051610">
        <ele>84.471</ele>
        <time>2018-12-27T21:02:20Z</time>
      </trkpt>
      <trkpt lat="37.693240" lon="-122.051440">
        <ele>84.741</ele>
        <time>2018-12-27T21:02:40Z</time>
      </trkpt>
      <trkpt lat="37.693240" lon="-122.051280">
        <ele>85.015</ele>
        <time>2018-12-27T21:03:00Z</time>
      </trkpt>
      <trkpt lat="37.693270" lon="-122.050960">
        <ele>85.708</ele>
        <time>2018-12-27T21:03:20Z</time>
      </trkpt>
      <trkpt lat="37.693280" lon="-122.050790">
        <ele>86.030</ele>
        <time>2018-12-27T21:03:40Z</time>
      </trkpt>
      <trkpt lat="37.693300" lon="-122.050630">
        <ele>86.358</ele>
        <time>2018-12-27T21:04:00Z</time>
      </trkpt>
      <trkpt lat="37.693320" lon="-122.050500">
        <ele>86.543</ele>
        <time>2018-12-27T21:04:20Z</time>
      </trkpt>
      <trkpt lat="37.693330" lon="-122.050420">
        <ele>86.692</ele>
        <time>2018-12-27T21:04:40Z</time>
      </trkpt>
      <trkpt lat="37.693330" lon="-122.050340">
        <ele>86.936</ele>
        <time>2018-12-27T21:05:00Z</time>
      </trkpt>
      <trkpt lat="37.693390" lon="-122.050000">
        <ele>87.772</ele>
        <time>2018-12-27T21:05:20Z</time>
      </trkpt>
      <trkpt lat="37.693450" lon="-122.049640">
        <ele>88.049</ele>
        <time>2018-12-27T21:05:40Z</time>
      </trkpt>
      <trkpt lat="37.693510" lon="-122.049360">
        <ele>88.183</ele>
        <time>2018-12-27T21:06:00Z</time>
      </trkpt>
      <trkpt lat="37.693580" lon="-122.049040">
        <ele>88.795</ele>
        <time>2018-12-27T21:06:20Z</time>
      </trkpt>
      <trkpt lat="37.693620" lon="-122.048880">
        <ele>89.049</ele>
        <time>2018-12-27T21:06:40Z</time>
      </trkpt>
      <trkpt lat="37.693700" lon="-122.048560">
        <ele>89.623</ele>
        <time>2018-12-27T21:07:00Z</time>
      </trkpt>
      <trkpt lat="37.693750" lon="-122.048410">
        <ele>89.308</ele>
        <time>2018-12-27T21:07:20Z</time>
      </trkpt>
      <trkpt lat="37.693790" lon="-122.048250">
        <ele>89.662</ele>
        <time>2018-12-27T21:07:40Z</time>
      </trkpt>
      <trkpt lat="37.693840" lon="-122.048100">
        <ele>89.810</ele>
        <time>2018-12-27T21:08:00Z</time>
      </trkpt>
      <trkpt lat="37.693890" lon="-122.047940">
        <ele>89.965</ele>
        <time>2018-12-27T21:08:20Z</time>
      </trkpt>
      <trkpt lat="37.693940" lon="-122.047800">
        <ele>90.194</ele>
        <time>2018-12-27T21:08:40Z</time>
      </trkpt>
      <trkpt lat="37.694010" lon="-122.047610">
        <ele>90.288</ele>
        <time>2018-12-27T21:09:00Z</time>
      </trkpt>
      <trkpt lat="37.694110" lon="-122.047340">
        <ele>90.784</ele>
        <time>2018-12-27T21:09:20Z</time>
      </trkpt>
      <trkpt lat="37.694170" lon="-122.047200">
        <ele>90.751</ele>
        <time>2018-12-27T21:09:40Z</time>
      </trkpt>
      <trkpt lat="37.694240" lon="-122.047040">
        <ele>90.995</ele>
        <time>2018-12-27T21:10:00Z</time>
      </trkpt>
      <trkpt lat="37.694340" lon="-122.046810">
        <ele>91.136</ele>
        <time>2018-12-27T21:10:20Z</time>
      </trkpt>
      <trkpt lat="37.694420" lon="-122.046630">
        <ele>91.317</ele>
        <time>2018-12-27T21:10:40Z</time>
      </trkpt>
      <trkpt lat="37.694500" lon="-122.046470">
        <ele>91.518</ele>
        <time>2018-12-27T21:11:00Z</time>
      </trkpt>
      <trkpt lat="37.694560" lon="-122.046350">
        <ele>91.608</ele>
        <time>2018-12-27T21:11:20Z</time>
      </trkpt>
      <trkpt lat="37.694620" lon="-122.046230">
        <ele>91.786</ele>
        <time>2018-12-27T21:11:40Z</time>
      </trkpt>
      <trkpt lat="37.694780" lon="-122.045950">
        <ele>92.334</ele>
        <time>2018-12-27T21:12:00Z</time>
      </trkpt>
      <trkpt lat="37.694850" lon="-122.045810">
        <ele>92.289</ele>
        <time>2018-12-27T21:12:20Z</time>
      </trkpt>
      <trkpt lat="37.694960" lon="-122.045630">
        <ele>92.518</ele>
        <time>2018-12-27T21:12:40Z</time>
      </trkpt>
      <trkpt lat="37.695090" lon="-122.045420">
        <ele>92.692</ele>
        <time>2018-12-27T21:13:00Z</time>
      </trkpt>
      <trkpt lat="37.695180" lon="-122.045290">
        <ele>92.558</ele>
        <time>2018-12-27T21:13:20Z</time>
      </trkpt>
      <trkpt lat="37.695350" lon="-122.045020">
        <ele>84.035</ele>
        <time>2018-12-27T21:13:40Z</time>
      </trkpt>
      <trkpt lat="37.695470" lon="-122.044850">
        <ele>77.339</ele>
        <time>2018-12-27T21:14:00Z</time>
      </trkpt>
      <trkpt lat="37.695620" lon="-122.044650">
        <ele>76.082</ele>
        <time>2018-12-27T21:14:20Z</time>
      </trkpt>
      <trkpt lat="37.695710" lon="-122.044540">
        <ele>78.943</ele>
        <time>2018-12-27T21:14:40Z</time>
      </trkpt>
      <trkpt lat="37.695800" lon="-122.044440">
        <ele>84.117</ele>
        <time>2018-12-27T21:15:00Z</time>
      </trkpt>
      <trkpt lat="37.695900" lon="-122.044320">
        <ele>90.008</ele>
        <time>2018-12-27T21:15:20Z</time>
      </trkpt>
      <trkpt lat="37.695980" lon="-122.044220">
        <ele>93.121</ele>
        <time>2018-12-27T21:15:40Z</time>
      </trkpt>
      <trkpt lat="37.696070" lon="-122.044110">
        <ele>94.499</ele>
        <time>2018-12-27T21:16:00Z</time>
      </trkpt>
      <trkpt lat="37.696500" lon="-122.043650">
        <ele>96.744</ele>
        <time>2018-12-27T21:16:20Z</time>
      </trkpt>
      <trkpt lat="37.696920" lon="-122.043190">
        <ele>85.873</ele>
        <time>2018-12-27T21:16:40Z</time>
      </trkpt>
      <trkpt lat="37.697450" lon="-122.042620">
        <ele>83.937</ele>
        <time>2018-12-27T21:17:00Z</time>
      </trkpt>
      <trkpt lat="37.697770" lon="-122.042280">
        <ele>97.083</ele>
        <time>2018-12-27T21:17:20Z</time>
      </trkpt>
      <trkpt lat="37.698530" lon="-122.041460">
        <ele>102.820</ele>
        <time>2018-12-27T21:17:40Z</time>
      </trkpt>
      <trkpt lat="37.698790" lon="-122.041180">
        <ele>103.634</ele>
        <time>2018-12-27T21:18:00Z</time>
      </trkpt>
      <trkpt lat="37.699010" lon="-122.040940">
        <ele>104.487</ele>
        <time>2018-12-27T21:18:20Z</time>
      </trkpt>
      <trkpt lat="37.699200" lon="-122.040730">
        <ele>104.942</ele>
        <time>2018-12-27T21:18:40Z</time>
      </trkpt>
      <trkpt lat="37.699330" lon="-122.040590">
        <ele>105.326</ele>
        <time>2018-12-27T21:19:00Z</time>
      </trkpt>
      <trkpt lat="37.699490" lon="-122.040400">
        <ele>105.808</ele>
        <time>2018-12-27T21:19:20Z</time>
      </trkpt>
      <trkpt lat="37.699620" lon="-122.040240">
        <ele>106.221</ele>
        <time>2018-12-27T21:19:40Z</time>
      </trkpt>
      <trkpt lat="37.699700" lon="-122.040130">
        <ele>106.469</ele>
        <time>2018-12-27T21:20:00Z</time>
      </trkpt>
      <trkpt lat="37.699800" lon="-122.040000">
        <ele>106.824</ele>
        <time>2018-12-27T21:20:20Z</time>
      </trkpt>
      <trkpt lat="37.699900" lon="-122.039870">
        <ele>107.353</ele>
        <time>2018-12-27T21:20:40Z</time>
      </trkpt>
      <trkpt lat="37.699990" lon="-122.039740">
        <ele>107.677</ele>
        <time>2018-12-27T21:21:00Z</time>
      </trkpt>
      <trkpt lat="37.700070" lon="-122.039620">
        <ele>107.973</ele>
        <time>2018-12-27T21:21:20Z</time>
      </trkpt>
      <trkpt lat="37.700160" lon="-122.039480">
        <ele>108.350</ele>
        <time>2018-12-27T21:21:40Z</time>
      </trkpt>
      <trkpt lat="37.700240" lon="-122.039350">
        <ele>108.674</ele>
        <time>2018-12-27T21:22:00Z</time>
      </trkpt>
      <trkpt lat="37.700400" lon="-122.039080">
        <ele>109.227</ele>
        <time>2018-12-27T21:22:20Z</time>
      </trkpt>
      <trkpt lat="37.700550" lon="-122.038830">
        <ele>109.968</ele>
        <time>2018-12-27T21:22:40Z</time>
      </trkpt>
      <trkpt lat="37.700630" lon="-122.038670">
        <ele>110.714</ele>
        <time>2018-12-27T21:23:00Z</time>
      </trkpt>
      <trkpt lat="37.700810" lon="-122.038310">
        <ele>111.808</ele>
        <time>2018-12-27T21:23:20Z</time>
      </trkpt>
      <trkpt lat="37.700880" lon="-122.038170">
        <ele>112.595</ele>
        <time>2018-12-27T21:23:40Z</time>
      </trkpt>
      <trkpt lat="37.700920" lon="-122.038080">
        <ele>113.053</ele>
        <time>2018-12-27T21:24:00Z</time>
      </trkpt>
      <trkpt lat="37.701070" lon="-122.037730">
        <ele>112.568</ele>
        <time>2018-12-27T21:24:20Z</time>
      </trkpt>
      <trkpt lat="37.701180" lon="-122.037450">
        <ele>113.467</ele>
        <time>2018-12-27T21:24:40Z</time>
      </trkpt>
      <trkpt lat="37.701300" lon="-122.037120">
        <ele>114.171</ele>
        <time>2018-12-27T21:25:00Z</time>
      </trkpt>
      <trkpt lat="37.701370" lon="-122.036910">
        <ele>114.167</ele>
        <time>2018-12-27T21:25:20Z</time>
      </trkpt>
      <trkpt lat="37.701460" lon="-122.036630">
        <ele>112.224</ele>
        <time>2018-12-27T21:25:40Z</time>
      </trkpt>
      <trkpt lat="37.701500" lon="-122.036480">
        <ele>110.448</ele>
        <time>2018-12-27T21:26:00Z</time>
      </trkpt>
      <trkpt lat="37.701530" lon="-122.036360">
        <ele>108.285</ele>
        <time>2018-12-27T21:26:20Z</time>
      </trkpt>
      <trkpt lat="37.701580" lon="-122.036170">
        <ele>104.489</ele>
        <time>2018-12-27T21:26:40Z</time>
      </trkpt>
      <trkpt lat="37.701660" lon="-122.035860">
        <ele>100.217</ele>
        <time>2018-12-27T21:27:00Z</time>
      </trkpt>
      <trkpt lat="37.701770" lon="-122.035360">
        <ele>98.408</ele>
        <time>2018-12-27T21:27:20Z</time>
      </trkpt>
      <trkpt lat="37.701800" lon="-122.035200">
        <ele>99.481</ele>
        <time>2018-12-27T21:27:40Z</time>
      </trkpt>
      <trkpt lat="37.701820" lon="-122.035050">
        <ele>101.769</ele>
        <time>2018-12-27T21:28:00Z</time>
      </trkpt>
      <trkpt lat="37.701850" lon="-122.034840">
        <ele>106.494</ele>
        <time>2018-12-27T21:28:20Z</time>
      </trkpt>
      <trkpt lat="37.701870" lon="-122.034700">
        <ele>109.063</ele>
        <time>2018-12-27T21:28:40Z</time>
      </trkpt>
      <trkpt lat="37.701890" lon="-122.034560">
        <ele>111.777</ele>
        <time>2018-12-27T21:29:00Z</time>
      </trkpt>
      <trkpt lat="37.701920" lon="-122.034320">
        <ele>116.613</ele>
        <time>2018-12-27T21:29:20Z</time>
      </trkpt>
      <trkpt lat="37.701940" lon="-122.034080">
        <ele>120.650</ele>
        <time>2018-12-27T21:29:40Z</time>
      </trkpt>
      <trkpt lat="37.701960" lon="-122.033780">
        <ele>122.734</ele>
        <time>2018-12-27T21:30:00Z</time>
      </trkpt>
      <trkpt lat="37.701970" lon="-122.033590">
        <ele>123.133</ele>
        <time>2018-12-27T21:30:20Z</time>
      </trkpt>
      <trkpt lat="37.701980" lon="-122.033270">
        <ele>123.723</ele>
        <time>2018-12-27T21:30:40Z</time>
      </trkpt>
      <trkpt lat="37.701980" lon="-122.033110">
        <ele>124.115</ele>
        <time>2018-12-27T21:31:00Z</time>
      </trkpt>
      <trkpt lat="37.701980" lon="-122.032760">
        <ele>125.208</ele>
        <time>2018-12-27T21:31:20Z</time>
      </trkpt>
      <trkpt lat="37.701980" lon="-122.032580">
        <ele>125.936</ele>
        <time>2018-12-27T21:31:40Z</time>
      </trkpt>
      <trkpt lat="37.701970" lon="-122.032430">
        <ele>126.474</ele>
        <time>2018-12-27T21:32:00Z</time>
      </trkpt>
      <trkpt lat="37.701960" lon="-122.032260">
        <ele>126.979</ele>
        <time>2018-12-27T21:32:20Z</time>
      </trkpt>
      <trkpt lat="37.701950" lon="-122.032080">
        <ele>127.698</ele>
        <time>2018-12-27T21:32:40Z</time>
      </trkpt>
      <trkpt lat="37.701940" lon="-122.031890">
        <ele>128.252</ele>
        <time>2018-12-27T21:33:00Z</time>
      </trkpt>
      <trkpt lat="37.701920" lon="-122.031730">
        <ele>128.678</ele>
        <time>2018-12-27T21:33:20Z</time>
      </trkpt>
      <trkpt lat="37.701900" lon="-122.031580">
        <ele>129.055</ele>
        <time>2018-12-27T21:33:40Z</time>
      </trkpt>
      <trkpt lat="37.701880" lon="-122.031430">
        <ele>129.419</ele>
        <time>2018-12-27T21:34:00Z</time>
      </trkpt>
      <trkpt lat="37.701860" lon="-122.031270">
        <ele>129.841</ele>
        <time>2018-12-27T21:34:20Z</time>
      </trkpt>
      <trkpt lat="37.701840" lon="-122.031110">
        <ele>130.181</ele>
        <time>2018-12-27T21:34:40Z</time>
      </trkpt>
      <trkpt lat="37.701810" lon="-122.030920">
        <ele>130.509</ele>
        <time>2018-12-27T21:35:00Z</time>
      </trkpt>
      <trkpt lat="37.701780" lon="-122.030750">
        <ele>130.608</ele>
        <time>2018-12-27T21:35:20Z</time>
      </trkpt>
      <trkpt lat="37.701750" lon="-122.030590">
        <ele>130.717</ele>
        <time>2018-12-27T21:35:40Z</time>
      </trkpt>
      <trkpt lat="37.701730" lon="-122.030460">
        <ele>131.055</ele>
        <time>2018-12-27T21:36:00Z</time>
      </trkpt>
      <trkpt lat="37.701690" lon="-122.030290">
        <ele>131.320</ele>
        <time>2018-12-27T21:36:20Z</time>
      </trkpt>
      <trkpt lat="37.701640" lon="-122.030090">
        <ele>131.769</ele>
        <time>2018-12-27T21:36:40Z</time>
      </trkpt>
      <trkpt lat="37.701600" lon="-122.029890">
        <ele>131.943</ele>
        <time>2018-12-27T21:37:00Z</time>
      </trkpt>
      <trkpt lat="37.701550" lon="-122.029700">
        <ele>132.249</ele>
        <time>2018-12-27T21:37:20Z</time>
      </trkpt>
      <trkpt lat="37.701370" lon="-122.029080">
        <ele>133.956</ele>
        <time>2018-12-27T21:37:40Z</time>
      </trkpt>
      <trkpt lat="37.701210" lon="-122.028510">
        <ele>134.640</ele>
        <time>2018-12-27T21:38:00Z</time>
      </trkpt>
      <trkpt lat="37.701090" lon="-122.028060">
        <ele>134.751</ele>
        <time>2018-12-27T21:38:20Z</time>
      </trkpt>
      <trkpt lat="37.701050" lon="-122.027910">
        <ele>133.701</ele>
        <time>2018-12-27T21:38:40Z</time>
      </trkpt>
      <trkpt lat="37.700980" lon="-122.027610">
        <ele>133.511</ele>
        <time>2018-12-27T21:39:00Z</time>
      </trkpt>
      <trkpt lat="37.700940" lon="-122.027430">
        <ele>134.408</ele>
        <time>2018-12-27T21:39:20Z</time>
      </trkpt>
      <trkpt lat="37.700880" lon="-122.027130">
        <ele>135.188</ele>
        <time>2018-12-27T21:39:40Z</time>
      </trkpt>
      <trkpt lat="37.700850" lon="-122.026950">
        <ele>134.736</ele>
        <time>2018-12-27T21:40:00Z</time>
      </trkpt>
      <trkpt lat="37.700760" lon="-122.026380">
        <ele>132.841</ele>
        <time>2018-12-27T21:40:20Z</time>
      </trkpt>
      <trkpt lat="37.700740" lon="-122.026150">
        <ele>132.570</ele>
        <time>2018-12-27T21:40:40Z</time>
      </trkpt>
      <trkpt lat="37.700720" lon="-122.025980">
        <ele>132.354</ele>
        <time>2018-12-27T21:41:00Z</time>
      </trkpt>
      <trkpt lat="37.700710" lon="-122.025820">
        <ele>132.290</ele>
        <time>2018-12-27T21:41:20Z</time>
      </trkpt>
      <trkpt lat="37.700690" lon="-122.025640">
        <ele>132.127</ele>
        <time>2018-12-27T21:41:40Z</time>
      </trkpt>
      <trkpt lat="37.700680" lon="-122.025450">
        <ele>132.021</ele>
        <time>2018-12-27T21:42:00Z</time>
      </trkpt>
      <trkpt lat="37.700670" lon="-122.025160">
        <ele>131.771</ele>
        <time>2018-12-27T21:42:20Z</time>
      </trkpt>
      <trkpt lat="37.700660" lon="-122.024990">
        <ele>131.541</ele>
        <time>2018-12-27T21:42:40Z</time>
      </trkpt>
      <trkpt lat="37.700660" lon="-122.024830">
        <ele>131.315</ele>
        <time>2018-12-27T21:43:00Z</time>
      </trkpt>
      <trkpt lat="37.700660" lon="-122.024530">
        <ele>130.908</ele>
        <time>2018-12-27T21:43:20Z</time>
      </trkpt>
      <trkpt lat="37.700660" lon="-122.024300">
        <ele>130.740</ele>
        <time>2018-12-27T21:43:40Z</time>
      </trkpt>
      <trkpt lat="37.700670" lon="-122.024130">
        <ele>130.548</ele>
        <time>2018-12-27T21:44:00Z</time>
      </trkpt>
      <trkpt lat="37.700680" lon="-122.023810">
        <ele>130.223</ele>
        <time>2018-12-27T21:44:20Z</time>
      </trkpt>
      <trkpt lat="37.700710" lon="-122.023530">
        <ele>130.112</ele>
        <time>2018-12-27T21:44:40Z</time>
      </trkpt>
      <trkpt lat="37.700730" lon="-122.023310">
        <ele>129.946</ele>
        <time>2018-12-27T21:45:00Z</time>
      </trkpt>
      <trkpt lat="37.700750" lon="-122.023120">
        <ele>129.882</ele>
        <time>2018-12-27T21:45:20Z</time>
      </trkpt>
      <trkpt lat="37.700790" lon="-122.022820">
        <ele>129.529</ele>
        <time>2018-12-27T21:45:40Z</time>
      </trkpt>
      <trkpt lat="37.700810" lon="-122.022660">
        <ele>129.343</ele>
        <time>2018-12-27T21:46:00Z</time>
      </trkpt>
      <trkpt lat="37.700840" lon="-122.022500">
        <ele>128.881</ele>
        <time>2018-12-27T21:46:20Z</time>
      </trkpt>
      <trkpt lat="37.700880" lon="-122.022230">
        <ele>128.161</ele>
        <time>2018-12-27T21:46:40Z</time>
      </trkpt>
      <trkpt lat="37.700920" lon="-122.022040">
        <ele>128.017</ele>
        <time>2018-12-27T21:47:00Z</time>
      </trkpt>
      <trkpt lat="37.700950" lon="-122.021890">
        <ele>128.208</ele>
        <time>2018-12-27T21:47:20Z</time>
      </trkpt>
      <trkpt lat="37.701010" lon="-122.021610">
        <ele>128.461</ele>
        <time>2018-12-27T21:47:40Z</time>
      </trkpt>
      <trkpt lat="37.701060" lon="-122.021420">
        <ele>126.119</ele>
        <time>2018-12-27T21:48:00Z</time>
      </trkpt>
      <trkpt lat="37.701140" lon="-122.021130">
        <ele>120.784</ele>
        <time>2018-12-27T21:48:20Z</time>
      </trkpt>
      <trkpt lat="37.701190" lon="-122.020950">
        <ele>120.733</ele>
        <time>2018-12-27T21:48:40Z</time>
      </trkpt>
      <trkpt lat="37.701260" lon="-122.020750">
        <ele>126.397</ele>
        <time>2018-12-27T21:49:00Z</time>
      </trkpt>
      <trkpt lat="37.701340" lon="-122.020480">
        <ele>127.453</ele>
        <time>2018-12-27T21:49:20Z</time>
      </trkpt>
      <trkpt lat="37.701390" lon="-122.020370">
        <ele>126.970</ele>
        <time>2018-12-27T21:49:40Z</time>
      </trkpt>
      <trkpt lat="37.701430" lon="-122.020240">
        <ele>126.274</ele>
        <time>2018-12-27T21:50:00Z</time>
      </trkpt>
      <trkpt lat="37.701570" lon="-122.019880">
        <ele>127.285</ele>
        <time>2018-12-27T21:50:20Z</time>
      </trkpt>
      <trkpt lat="37.701670" lon="-122.019620">
        <ele>127.189</ele>
        <time>2018-12-27T21:50:40Z</time>
      </trkpt>
      <trkpt lat="37.701870" lon="-122.019090">
        <ele>127.817</ele>
        <time>2018-12-27T21:51:00Z</time>
      </trkpt>
      <trkpt lat="37.702000" lon="-122.018750">
        <ele>128.008</ele>
        <time>2018-12-27T21:51:20Z</time>
      </trkpt>
      <trkpt lat="37.702090" lon="-122.018470">
        <ele>129.021</ele>
        <time>2018-12-27T21:51:40Z</time>
      </trkpt>
      <trkpt lat="37.702140" lon="-122.018330">
        <ele>129.259</ele>
        <time>2018-12-27T21:52:00Z</time>
      </trkpt>
      <trkpt lat="37.702190" lon="-122.018200">
        <ele>129.534</ele>
        <time>2018-12-27T21:52:20Z</time>
      </trkpt>
      <trkpt lat="37.702230" lon="-122.018060">
        <ele>129.973</ele>
        <time>2018-12-27T21:52:40Z</time>
      </trkpt>
      <trkpt lat="37.702300" lon="-122.017810">
        <ele>130.777</ele>
        <time>2018-12-27T21:53:00Z</time>
      </trkpt>
      <trkpt lat="37.702340" lon="-122.017670">
        <ele>131.283</ele>
        <time>2018-12-27T21:53:20Z</time>
      </trkpt>
      <trkpt lat="37.702370" lon="-122.017550">
        <ele>131.540</ele>
        <time>2018-12-27T21:53:40Z</time>
      </trkpt>
      <trkpt lat="37.702410" lon="-122.017420">
        <ele>131.824</ele>
        <time>2018-12-27T21:54:00Z</time>
      </trkpt>
      <trkpt lat="37.702440" lon="-122.017280">
        <ele>132.174</ele>
        <time>2018-12-27T21:54:20Z</time>
      </trkpt>
      <trkpt lat="37.702480" lon="-122.017150">
        <ele>132.556</ele>
        <time>2018-12-27T21:54:40Z</time>
      </trkpt>
      <trkpt lat="37.702530" lon="-122.016820">
        <ele>133.821</ele>
        <time>2018-12-27T21:55:00Z</time>
      </trkpt>
      <trkpt lat="37.702580" lon="-122.016540">
        <ele>135.008</ele>
        <time>2018-12-27T21:55:20Z</time>
      </trkpt>
      <trkpt lat="37.702640" lon="-122.016190">
        <ele>135.240</ele>
        <time>2018-12-27T21:55:40Z</time>
      </trkpt>
      <trkpt lat="37.702710" lon="-122.015750">
        <ele>136.318</ele>
        <time>2018-12-27T21:56:00Z</time>
      </trkpt>
      <trkpt lat="37.702730" lon="-122.015630">
        <ele>136.633</ele>
        <time>2018-12-27T21:56:20Z</time>
      </trkpt>
      <trkpt lat="37.702740" lon="-122.015520">
        <ele>136.982</ele>
        <time>2018-12-27T21:56:40Z</time>
      </trkpt>
      <trkpt lat="37.702760" lon="-122.015370">
        <ele>137.346</ele>
        <time>2018-12-27T21:57:00Z</time>
      </trkpt>
      <trkpt lat="37.702770" lon="-122.015220">
        <ele>137.732</ele>
        <time>2018-12-27T21:57:20Z</time>
      </trkpt>
      <trkpt lat="37.702780" lon="-122.015070">
        <ele>138.389</ele>
        <time>2018-12-27T21:57:40Z</time>
      </trkpt>
      <trkpt lat="37.702800" lon="-122.014550">
        <ele>140.633</ele>
        <time>2018-12-27T21:58:00Z</time>
      </trkpt>
      <trkpt lat="37.702830" lon="-122.013900">
        <ele>142.484</ele>
        <time>2018-12-27T21:58:20Z</time>
      </trkpt>
      <trkpt lat="37.702870" lon="-122.013210">
        <ele>143.807</ele>
        <time>2018-12-27T21:58:40Z</time>
      </trkpt>
      <trkpt lat="37.702910" lon="-122.012220">
        <ele>146.017</ele>
        <time>2018-12-27T21:59:00Z</time>
      </trkpt>
      <trkpt lat="37.703170" lon="-122.006670">
        <ele>160.708</ele>
        <time>2018-12-27T21:59:20Z</time>
      </trkpt>
      <trkpt lat="37.703230" lon="-122.005370">
        <ele>164.071</ele>
        <time>2018-12-27T21:59:40Z</time>
      </trkpt>
      <trkpt lat="37.703300" lon="-122.003930">
        <ele>167.499</ele>
        <time>2018-12-27T22:00:00Z</time>
      </trkpt>
      <trkpt lat="37.703330" lon="-122.003180">
        <ele>169.034</ele>
        <time>2018-12-27T22:00:20Z</time>
      </trkpt>
      <trkpt lat="37.703350" lon="-122.002690">
        <ele>170.463</ele>
        <time>2018-12-27T22:00:40Z</time>
      </trkpt>
      <trkpt lat="37.703370" lon="-122.002360">
        <ele>171.457</ele>
        <time>2018-12-27T22:01:00Z</time>
      </trkpt>
      <trkpt lat="37.703370" lon="-122.002030">
        <ele>172.343</ele>
        <time>2018-12-27T22:01:20Z</time>
      </trkpt>
      <trkpt lat="37.703380" lon="-122.001690">
        <ele>173.320</ele>
        <time>2018-12-27T22:01:40Z</time>
      </trkpt>
      <trkpt lat="37.703370" lon="-122.001130">
        <ele>174.754</ele>
        <time>2018-12-27T22:02:00Z</time>
      </trkpt>
      <trkpt lat="37.703360" lon="-122.000670">
        <ele>176.044</ele>
        <time>2018-12-27T22:02:20Z</time>
      </trkpt>
      <trkpt lat="37.703330" lon="-122.000210">
        <ele>177.205</ele>
        <time>2018-12-27T22:02:40Z</time>
      </trkpt>
      <trkpt lat="37.703300" lon="-121.999820">
        <ele>178.315</ele>
        <time>2018-12-27T22:03:00Z</time>
      </trkpt>
      <trkpt lat="37.703260" lon="-121.999320">
        <ele>179.808</ele>
        <time>2018-12-27T22:03:20Z</time>
      </trkpt>
      <trkpt lat="37.703240" lon="-121.999110">
        <ele>180.467</ele>
        <time>2018-12-27T22:03:40Z</time>
      </trkpt>
      <trkpt lat="37.703210" lon="-121.998840">
        <ele>181.225</ele>
        <time>2018-12-27T22:04:00Z</time>
      </trkpt>
      <trkpt lat="37.703190" lon="-121.998680">
        <ele>181.690</ele>
        <time>2018-12-27T22:04:20Z</time>
      </trkpt>
      <trkpt lat="37.703160" lon="-121.998480">
        <ele>181.979</ele>
        <time>2018-12-27T22:04:40Z</time>
      </trkpt>
      <trkpt lat="37.703140" lon="-121.998340">
        <ele>182.283</ele>
        <time>2018-12-27T22:05:00Z</time>
      </trkpt>
      <trkpt lat="37.703090" lon="-121.998030">
        <ele>183.159</ele>
        <time>2018-12-27T22:05:20Z</time>
      </trkpt>
      <trkpt lat="37.703010" lon="-121.997520">
        <ele>184.696</ele>
        <time>2018-12-27T22:05:40Z</time>
      </trkpt>
      <trkpt lat="37.702950" lon="-121.997220">
        <ele>185.410</ele>
        <time>2018-12-27T22:06:00Z</time>
      </trkpt>
      <trkpt lat="37.702840" lon="-121.996670">
        <ele>186.643</ele>
        <time>2018-12-27T22:06:20Z</time>
      </trkpt>
      <trkpt lat="37.702730" lon="-121.996170">
        <ele>188.264</ele>
        <time>2018-12-27T22:06:40Z</time>
      </trkpt>
      <trkpt lat="37.702590" lon="-121.995620">
        <ele>189.310</ele>
        <time>2018-12-27T22:07:00Z</time>
      </trkpt>
      <trkpt lat="37.702540" lon="-121.995460">
        <ele>189.708</ele>
        <time>2018-12-27T22:07:20Z</time>
      </trkpt>
      <trkpt lat="37.702450" lon="-121.995130">
        <ele>191.087</ele>
        <time>2018-12-27T22:07:40Z</time>
      </trkpt>
      <trkpt lat="37.702350" lon="-121.994810">
        <ele>191.835</ele>
        <time>2018-12-27T22:08:00Z</time>
      </trkpt>
      <trkpt lat="37.702250" lon="-121.994490">
        <ele>192.330</ele>
        <time>2018-12-27T22:08:20Z</time>
      </trkpt>
      <trkpt lat="37.702140" lon="-121.994170">
        <ele>193.819</ele>
        <time>2018-12-27T22:08:40Z</time>
      </trkpt>
      <trkpt lat="37.701990" lon="-121.993750">
        <ele>194.273</ele>
        <time>2018-12-27T22:09:00Z</time>
      </trkpt>
      <trkpt lat="37.701810" lon="-121.993250">
        <ele>196.679</ele>
        <time>2018-12-27T22:09:20Z</time>
      </trkpt>
      <trkpt lat="37.701630" lon="-121.992820">
        <ele>197.316</ele>
        <time>2018-12-27T22:09:40Z</time>
      </trkpt>
      <trkpt lat="37.701450" lon="-121.992400">
        <ele>198.140</ele>
        <time>2018-12-27T22:10:00Z</time>
      </trkpt>
      <trkpt lat="37.701380" lon="-121.992270">
        <ele>198.297</ele>
        <time>2018-12-27T22:10:20Z</time>
      </trkpt>
      <trkpt lat="37.701160" lon="-121.991770">
        <ele>199.723</ele>
        <time>2018-12-27T22:10:40Z</time>
      </trkpt>
      <trkpt lat="37.700730" lon="-121.990790">
        <ele>204.025</ele>
        <time>2018-12-27T22:11:00Z</time>
      </trkpt>
      <trkpt lat="37.700410" lon="-121.990050">
        <ele>206.608</ele>
        <time>2018-12-27T22:11:20Z</time>
      </trkpt>
      <trkpt lat="37.700290" lon="-121.989770">
        <ele>206.212</ele>
        <time>2018-12-27T22:11:40Z</time>
      </trkpt>
      <trkpt lat="37.700180" lon="-121.989470">
        <ele>208.430</ele>
        <time>2018-12-27T22:12:00Z</time>
      </trkpt>
      <trkpt lat="37.700140" lon="-121.989380">
        <ele>208.615</ele>
        <time>2018-12-27T22:12:20Z</time>
      </trkpt>
      <trkpt lat="37.700020" lon="-121.989040">
        <ele>207.944</ele>
        <time>2018-12-27T22:12:40Z</time>
      </trkpt>
      <trkpt lat="37.699910" lon="-121.988680">
        <ele>210.068</ele>
        <time>2018-12-27T22:13:00Z</time>
      </trkpt>
      <trkpt lat="37.699850" lon="-121.988470">
        <ele>209.964</ele>
        <time>2018-12-27T22:13:20Z</time>
      </trkpt>
      <trkpt lat="37.699770" lon="-121.988190">
        <ele>208.911</ele>
        <time>2018-12-27T22:13:40Z</time>
      </trkpt>
      <trkpt lat="37.699700" lon="-121.987900">
        <ele>210.435</ele>
        <time>2018-12-27T22:14:00Z</time>
      </trkpt>
      <trkpt lat="37.699640" lon="-121.987620">
        <ele>211.787</ele>
        <time>2018-12-27T22:14:20Z</time>
      </trkpt>
      <trkpt lat="37.699600" lon="-121.987400">
        <ele>211.842</ele>
        <time>2018-12-27T22:14:40Z</time>
      </trkpt>
      <trkpt lat="37.699550" lon="-121.987160">
        <ele>211.326</ele>
        <time>2018-12-27T22:15:00Z</time>
      </trkpt>
      <trkpt lat="37.699520" lon="-121.986940">
        <ele>210.908</ele>
        <time>2018-12-27T22:15:20Z</time>
      </trkpt>
      <trkpt lat="37.699490" lon="-121.986770">
        <ele>210.741</ele>
        <time>2018-12-27T22:15:40Z</time>
      </trkpt>
      <trkpt lat="37.699460" lon="-121.986570">
        <ele>211.029</ele>
        <time>2018-12-27T22:16:00Z</time>
      </trkpt>
      <trkpt lat="37.699440" lon="-121.986370">
        <ele>211.884</ele>
        <time>2018-12-27T22:16:20Z</time>
      </trkpt>
      <trkpt lat="37.699390" lon="-121.985990">
        <ele>213.133</ele>
        <time>2018-12-27T22:16:40Z</time>
      </trkpt>
      <trkpt lat="37.699360" lon="-121.985720">
        <ele>213.387</ele>
        <time>2018-12-27T22:17:00Z</time>
      </trkpt>
      <trkpt lat="37.699320" lon="-121.985290">
        <ele>213.523</ele>
        <time>2018-12-27T22:17:20Z</time>
      </trkpt>
      <trkpt lat="37.699240" lon="-121.984550">
        <ele>213.610</ele>
        <time>2018-12-27T22:17:40Z</time>
      </trkpt>
      <trkpt lat="37.699120" lon="-121.983630">
        <ele>215.454</ele>
        <time>2018-12-27T22:18:00Z</time>
      </trkpt>
      <trkpt lat="37.699060" lon="-121.983110">
        <ele>216.458</ele>
        <time>2018-12-27T22:18:20Z</time>
      </trkpt>
      <trkpt lat="37.699030" lon="-121.982820">
        <ele>216.952</ele>
        <time>2018-12-27T22:18:40Z</time>
      </trkpt>
      <trkpt lat="37.698980" lon="-121.982500">
        <ele>216.917</ele>
        <time>2018-12-27T22:19:00Z</time>
      </trkpt>
      <trkpt lat="37.698910" lon="-121.982010">
        <ele>217.408</ele>
        <time>2018-12-27T22:19:20Z</time>
      </trkpt>
      <trkpt lat="37.698820" lon="-121.981520">
        <ele>219.418</ele>
        <time>2018-12-27T22:19:40Z</time>
      </trkpt>
      <trkpt lat="37.698690" lon="-121.980750">
        <ele>219.916</ele>
        <time>2018-12-27T22:20:00Z</time>
      </trkpt>
      <trkpt lat="37.698590" lon="-121.980110">
        <ele>221.821</ele>
        <time>2018-12-27T22:20:20Z</time>
      </trkpt>
      <trkpt lat="37.698480" lon="-121.979450">
        <ele>218.790</ele>
        <time>2018-12-27T22:20:40Z</time>
      </trkpt>
      <trkpt lat="37.698360" lon="-121.978790">
        <ele>223.794</ele>
        <time>2018-12-27T22:21:00Z</time>
      </trkpt>
      <trkpt lat="37.698260" lon="-121.978270">
        <ele>225.560</ele>
        <time>2018-12-27T22:21:20Z</time>
      </trkpt>
      <trkpt lat="37.698180" lon="-121.977780">
        <ele>226.027</ele>
        <time>2018-12-27T22:21:40Z</time>
      </trkpt>
      <trkpt lat="37.698090" lon="-121.977270">
        <ele>225.681</ele>
        <time>2018-12-27T22:22:00Z</time>
      </trkpt>
      <trkpt lat="37.697930" lon="-121.976350">
        <ele>227.226</ele>
        <time>2018-12-27T22:22:20Z</time>
      </trkpt>
      <trkpt lat="37.697740" lon="-121.975240">
        <ele>227.147</ele>
        <time>2018-12-27T22:22:40Z</time>
      </trkpt>
      <trkpt lat="37.697690" lon="-121.974930">
        <ele>226.911</ele>
        <time>2018-12-27T22:23:00Z</time>
      </trkpt>
      <trkpt lat="37.697630" lon="-121.974600">
        <ele>226.708</ele>
        <time>2018-12-27T22:23:20Z</time>
      </trkpt>
      <trkpt lat="37.697580" lon="-121.974280">
        <ele>227.035</ele>
        <time>2018-12-27T22:23:40Z</time>
      </trkpt>
      <trkpt lat="37.697450" lon="-121.973500">
        <ele>225.813</ele>
        <time>2018-12-27T22:24:00Z</time>
      </trkpt>
      <trkpt lat="37.697370" lon="-121.972990">
        <ele>224.538</ele>
        <time>2018-12-27T22:24:20Z</time>
      </trkpt>
      <trkpt lat="37.697350" lon="-121.972770">
        <ele>224.147</ele>
        <time>2018-12-27T22:24:40Z</time>
      </trkpt>
      <trkpt lat="37.697290" lon="-121.972350">
        <ele>223.661</ele>
        <time>2018-12-27T22:25:00Z</time>
      </trkpt>
      <trkpt lat="37.697250" lon="-121.971980">
        <ele>222.777</ele>
        <time>2018-12-27T22:25:20Z</time>
      </trkpt>
      <trkpt lat="37.697220" lon="-121.971660">
        <ele>221.684</ele>
        <time>2018-12-27T22:25:40Z</time>
      </trkpt>
      <trkpt lat="37.697180" lon="-121.971340">
        <ele>220.358</ele>
        <time>2018-12-27T22:26:00Z</time>
      </trkpt>
      <trkpt lat="37.697160" lon="-121.971030">
        <ele>219.456</ele>
        <time>2018-12-27T22:26:20Z</time>
      </trkpt>
      <trkpt lat="37.697130" lon="-121.970650">
        <ele>218.159</ele>
        <time>2018-12-27T22:26:40Z</time>
      </trkpt>
      <trkpt lat="37.697110" lon="-121.970370">
        <ele>217.114</ele>
        <time>2018-12-27T22:27:00Z</time>
      </trkpt>
      <trkpt lat="37.697100" lon="-121.970180">
        <ele>216.408</ele>
        <time>2018-12-27T22:27:20Z</time>
      </trkpt>
      <trkpt lat="37.697070" lon="-121.969710">
        <ele>214.758</ele>
        <time>2018-12-27T22:27:40Z</time>
      </trkpt>
      <trkpt lat="37.697060" lon="-121.969290">
        <ele>213.226</ele>
        <time>2018-12-27T22:28:00Z</time>
      </trkpt>
      <trkpt lat="37.697050" lon="-121.968900">
        <ele>211.791</ele>
        <time>2018-12-27T22:28:20Z</time>
      </trkpt>
      <trkpt lat="37.697040" lon="-121.968250">
        <ele>209.470</ele>
        <time>2018-12-27T22:28:40Z</time>
      </trkpt>
      <trkpt lat="37.697040" lon="-121.967880">
        <ele>208.024</ele>
        <time>2018-12-27T22:29:00Z</time>
      </trkpt>
      <trkpt lat="37.697050" lon="-121.967430">
        <ele>206.680</ele>
        <time>2018-12-27T22:29:20Z</time>
      </trkpt>
      <trkpt lat="37.697070" lon="-121.966840">
        <ele>204.997</ele>
        <time>2018-12-27T22:29:40Z</time>
      </trkpt>
      <trkpt lat="37.697080" lon="-121.966420">
        <ele>203.621</ele>
        <time>2018-12-27T22:30:00Z</time>
      </trkpt>
      <trkpt lat="37.697100" lon="-121.966080">
        <ele>202.638</ele>
        <time>2018-12-27T22:30:20Z</time>
      </trkpt>
      <trkpt lat="37.697130" lon="-121.965750">
        <ele>201.670</ele>
        <time>2018-12-27T22:30:40Z</time>
      </trkpt>
      <trkpt lat="37.697160" lon="-121.965350">
        <ele>200.417</ele>
        <time>2018-12-27T22:31:00Z</time>
      </trkpt>
      <trkpt lat="37.697200" lon="-121.964790">
        <ele>198.308</ele>
        <time>2018-12-27T22:31:20Z</time>
      </trkpt>
      <trkpt lat="37.697260" lon="-121.964260">
        <ele>195.716</ele>
        <time>2018-12-27T22:31:40Z</time>
      </trkpt>
      <trkpt lat="37.697340" lon="-121.963630">
        <ele>194.554</ele>
        <time>2018-12-27T22:32:00Z</time>
      </trkpt>
      <trkpt lat="37.697380" lon="-121.963290">
        <ele>194.199</ele>
        <time>2018-12-27T22:32:20Z</time>
      </trkpt>
      <trkpt lat="37.697430" lon="-121.962960">
        <ele>193.118</ele>
        <time>2018-12-27T22:32:40Z</time>
      </trkpt>
      <trkpt lat="37.697480" lon="-121.962650">
        <ele>191.892</ele>
        <time>2018-12-27T22:33:00Z</time>
      </trkpt>
      <trkpt lat="37.697540" lon="-121.962310">
        <ele>190.018</ele>
        <time>2018-12-27T22:33:20Z</time>
      </trkpt>
      <trkpt lat="37.697630" lon="-121.961770">
        <ele>189.135</ele>
        <time>2018-12-27T22:33:40Z</time>
      </trkpt>
      <trkpt lat="37.697790" lon="-121.960870">
        <ele>185.429</ele>
        <time>2018-12-27T22:34:00Z</time>
      </trkpt>
      <trkpt lat="37.697910" lon="-121.960210">
        <ele>184.048</ele>
        <time>2018-12-27T22:34:20Z</time>
      </trkpt>
      <trkpt lat="37.697990" lon="-121.959780">
        <ele>182.861</ele>
        <time>2018-12-27T22:34:40Z</time>
      </trkpt>
      <trkpt lat="37.698070" lon="-121.959310">
        <ele>180.617</ele>
        <time>2018-12-27T22:35:00Z</time>
      </trkpt>
      <trkpt lat="37.698130" lon="-121.958950">
        <ele>179.308</ele>
        <time>2018-12-27T22:35:20Z</time>
      </trkpt>
      <trkpt lat="37.698190" lon="-121.958450">
        <ele>178.757</ele>
        <time>2018-12-27T22:35:40Z</time>
      </trkpt>
      <trkpt lat="37.698220" lon="-121.958110">
        <ele>177.795</ele>
        <time>2018-12-27T22:36:00Z</time>
      </trkpt>
      <trkpt lat="37.698240" lon="-121.957790">
        <ele>176.730</ele>
        <time>2018-12-27T22:36:20Z</time>
      </trkpt>
      <trkpt lat="37.698250" lon="-121.957470">
        <ele>175.789</ele>
        <time>2018-12-27T22:36:40Z</time>
      </trkpt>
      <trkpt lat="37.698270" lon="-121.956860">
        <ele>174.153</ele>
        <time>2018-12-27T22:37:00Z</time>
      </trkpt>
      <trkpt lat="37.698260" lon="-121.956020">
        <ele>171.569</ele>
        <time>2018-12-27T22:37:20Z</time>
      </trkpt>
      <trkpt lat="37.698250" lon="-121.954670">
        <ele>167.726</ele>
        <time>2018-12-27T22:37:40Z</time>
      </trkpt>
      <trkpt lat="37.698240" lon="-121.953350">
        <ele>163.810</ele>
        <time>2018-12-27T22:38:00Z</time>
      </trkpt>
      <trkpt lat="37.698230" lon="-121.951150">
        <ele>157.446</ele>
        <time>2018-12-27T22:38:20Z</time>
      </trkpt>
      <trkpt lat="37.698210" lon="-121.948700">
        <ele>150.088</ele>
        <time>2018-12-27T22:38:40Z</time>
      </trkpt>
      <trkpt lat="37.698200" lon="-121.947370">
        <ele>146.116</ele>
        <time>2018-12-27T22:39:00Z</time>
      </trkpt>
      <trkpt lat="37.698180" lon="-121.944320">
        <ele>136.808</ele>
        <time>2018-12-27T22:39:20Z</time>
      </trkpt>
      <trkpt lat="37.698180" lon="-121.943430">
        <ele>134.117</ele>
        <time>2018-12-27T22:39:40Z</time>
      </trkpt>
      <trkpt lat="37.698170" lon="-121.942510">
        <ele>131.225</ele>
        <time>2018-12-27T22:40:00Z</time>
      </trkpt>
      <trkpt lat="37.698160" lon="-121.942040">
        <ele>129.580</ele>
        <time>2018-12-27T22:40:20Z</time>
      </trkpt>
      <trkpt lat="37.698150" lon="-121.940770">
        <ele>125.619</ele>
        <time>2018-12-27T22:40:40Z</time>
      </trkpt>
      <trkpt lat="37.698140" lon="-121.939360">
        <ele>121.983</ele>
        <time>2018-12-27T22:41:00Z</time>
      </trkpt>
      <trkpt lat="37.698140" lon="-121.938700">
        <ele>120.359</ele>
        <time>2018-12-27T22:41:20Z</time>
      </trkpt>
      <trkpt lat="37.698130" lon="-121.938010">
        <ele>118.326</ele>
        <time>2018-12-27T22:41:40Z</time>
      </trkpt>
      <trkpt lat="37.698130" lon="-121.937250">
        <ele>116.390</ele>
        <time>2018-12-27T22:42:00Z</time>
      </trkpt>
      <trkpt lat="37.698120" lon="-121.936910">
        <ele>115.541</ele>
        <time>2018-12-27T22:42:20Z</time>
      </trkpt>
      <trkpt lat="37.698120" lon="-121.936760">
        <ele>115.281</ele>
        <time>2018-12-27T22:42:40Z</time>
      </trkpt>
      <trkpt lat="37.698120" lon="-121.936600">
        <ele>114.909</ele>
        <time>2018-12-27T22:43:00Z</time>
      </trkpt>
      <trkpt lat="37.698120" lon="-121.936370">
        <ele>114.508</ele>
        <time>2018-12-27T22:43:20Z</time>
      </trkpt>
      <trkpt lat="37.698120" lon="-121.936150">
        <ele>114.287</ele>
        <time>2018-12-27T22:43:40Z</time>
      </trkpt>
      <trkpt lat="37.698120" lon="-121.935960">
        <ele>114.055</ele>
        <time>2018-12-27T22:44:00Z</time>
      </trkpt>
      <trkpt lat="37.698130" lon="-121.935800">
        <ele>113.850</ele>
        <time>2018-12-27T22:44:20Z</time>
      </trkpt>
      <trkpt lat="37.698130" lon="-121.935630">
        <ele>113.539</ele>
        <time>2018-12-27T22:44:40Z</time>
      </trkpt>
      <trkpt lat="37.698140" lon="-121.935460">
        <ele>113.493</ele>
        <time>2018-12-27T22:45:00Z</time>
      </trkpt>
      <trkpt lat="37.698150" lon="-121.935250">
        <ele>113.399</ele>
        <time>2018-12-27T22:45:20Z</time>
      </trkpt>
      <trkpt lat="37.698170" lon="-121.935030">
        <ele>113.356</ele>
        <time>2018-12-27T22:45:40Z</time>
      </trkpt>
      <trkpt lat="37.698190" lon="-121.934840">
        <ele>113.210</ele>
        <time>2018-12-27T22:46:00Z</time>
      </trkpt>
      <trkpt lat="37.698210" lon="-121.934630">
        <ele>113.047</ele>
        <time>2018-12-27T22:46:20Z</time>
      </trkpt>
      <trkpt lat="37.698230" lon="-121.934440">
        <ele>112.829</ele>
        <time>2018-12-27T22:46:40Z</time>
      </trkpt>
      <trkpt lat="37.698250" lon="-121.934280">
        <ele>112.721</ele>
        <time>2018-12-27T22:47:00Z</time>
      </trkpt>
      <trkpt lat="37.698270" lon="-121.934130">
        <ele>112.708</ele>
        <time>2018-12-27T22:47:20Z</time>
      </trkpt>
      <trkpt lat="37.698290" lon="-121.933980">
        <ele>112.547</ele>
        <time>2018-12-27T22:47:40Z</time>
      </trkpt>
      <trkpt lat="37.698310" lon="-121.933810">
        <ele>112.395</ele>
        <time>2018-12-27T22:48:00Z</time>
      </trkpt>
      <trkpt lat="37.698340" lon="-121.933650">
        <ele>112.280</ele>
        <time>2018-12-27T22:48:20Z</time>
      </trkpt>
      <trkpt lat="37.698360" lon="-121.933510">
        <ele>112.269</ele>
        <time>2018-12-27T22:48:40Z</time>
      </trkpt>
      <trkpt lat="37.698390" lon="-121.933320">
        <ele>112.013</ele>
        <time>2018-12-27T22:49:00Z</time>
      </trkpt>
      <trkpt lat="37.698420" lon="-121.933160">
        <ele>111.889</ele>
        <time>2018-12-27T22:49:20Z</time>
      </trkpt>
      <trkpt lat="37.698450" lon="-121.933020">
        <ele>111.616</ele>
        <time>2018-12-27T22:49:40Z</time>
      </trkpt>
      <trkpt lat="37.698480" lon="-121.932860">
        <ele>111.420</ele>
        <time>2018-12-27T22:50:00Z</time>
      </trkpt>
      <trkpt lat="37.698520" lon="-121.932680">
        <ele>111.391</ele>
        <time>2018-12-27T22:50:20Z</time>
      </trkpt>
      <trkpt lat="37.698560" lon="-121.932520">
        <ele>111.281</ele>
        <time>2018-12-27T22:50:40Z</time>
      </trkpt>
      <trkpt lat="37.698590" lon="-121.932360">
        <ele>111.119</ele>
        <time>2018-12-27T22:51:00Z</time>
      </trkpt>
      <trkpt lat="37.698660" lon="-121.932090">
        <ele>110.908</ele>
        <time>2018-12-27T22:51:20Z</time>
      </trkpt>
      <trkpt lat="37.698740" lon="-121.931780">
        <ele>110.262</ele>
        <time>2018-12-27T22:51:40Z</time>
      </trkpt>
      <trkpt lat="37.698780" lon="-121.931610">
        <ele>110.110</ele>
        <time>2018-12-27T22:52:00Z</time>
      </trkpt>
      <trkpt lat="37.698980" lon="-121.930780">
        <ele>109.165</ele>
        <time>2018-12-27T22:52:20Z</time>
      </trkpt>
      <trkpt lat="37.699060" lon="-121.930470">
        <ele>108.854</ele>
        <time>2018-12-27T22:52:40Z</time>
      </trkpt>
      <trkpt lat="37.699090" lon="-121.930320">
        <ele>108.718</ele>
        <time>2018-12-27T22:53:00Z</time>
      </trkpt>
      <trkpt lat="37.699130" lon="-121.930170">
        <ele>108.474</ele>
        <time>2018-12-27T22:53:20Z</time>
      </trkpt>
      <trkpt lat="37.699170" lon="-121.929990">
        <ele>108.291</ele>
        <time>2018-12-27T22:53:40Z</time>
      </trkpt>
      <trkpt lat="37.699250" lon="-121.929660">
        <ele>108.155</ele>
        <time>2018-12-27T22:54:00Z</time>
      </trkpt>
      <trkpt lat="37.699420" lon="-121.928880">
        <ele>107.319</ele>
        <time>2018-12-27T22:54:20Z</time>
      </trkpt>
      <trkpt lat="37.699700" lon="-121.927610">
        <ele>106.209</ele>
        <time>2018-12-27T22:54:40Z</time>
      </trkpt>
      <trkpt lat="37.699820" lon="-121.927070">
        <ele>105.719</ele>
        <time>2018-12-27T22:55:00Z</time>
      </trkpt>
      <trkpt lat="37.699930" lon="-121.926540">
        <ele>105.208</ele>
        <time>2018-12-27T22:55:20Z</time>
      </trkpt>
      <trkpt lat="37.700050" lon="-121.926030">
        <ele>104.914</ele>
        <time>2018-12-27T22:55:40Z</time>
      </trkpt>
      <trkpt lat="37.700110" lon="-121.925760">
        <ele>104.512</ele>
        <time>2018-12-27T22:56:00Z</time>
      </trkpt>
      <trkpt lat="37.700180" lon="-121.925480">
        <ele>104.387</ele>
        <time>2018-12-27T22:56:20Z</time>
      </trkpt>
      <trkpt lat="37.700280" lon="-121.925060">
        <ele>104.246</ele>
        <time>2018-12-27T22:56:40Z</time>
      </trkpt>
      <trkpt lat="37.700400" lon="-121.924560">
        <ele>103.530</ele>
        <time>2018-12-27T22:57:00Z</time>
      </trkpt>
      <trkpt lat="37.700540" lon="-121.923930">
        <ele>103.486</ele>
        <time>2018-12-27T22:57:20Z</time>
      </trkpt>
      <trkpt lat="37.700590" lon="-121.923720">
        <ele>103.523</ele>
        <time>2018-12-27T22:57:40Z</time>
      </trkpt>
      <trkpt lat="37.700650" lon="-121.923470">
        <ele>103.157</ele>
        <time>2018-12-27T22:58:00Z</time>
      </trkpt>
      <trkpt lat="37.700740" lon="-121.923070">
        <ele>103.047</ele>
        <time>2018-12-27T22:58:20Z</time>
      </trkpt>
      <trkpt lat="37.700930" lon="-121.922200">
        <ele>103.329</ele>
        <time>2018-12-27T22:58:40Z</time>
      </trkpt>
      <trkpt lat="37.701000" lon="-121.921860">
        <ele>103.021</ele>
        <time>2018-12-27T22:59:00Z</time>
      </trkpt>
      <trkpt lat="37.701100" lon="-121.921390">
        <ele>103.308</ele>
        <time>2018-12-27T22:59:20Z</time>
      </trkpt>
      <trkpt lat="37.701160" lon="-121.921110">
        <ele>103.317</ele>
        <time>2018-12-27T22:59:40Z</time>
      </trkpt>
      <trkpt lat="37.701300" lon="-121.920540">
        <ele>103.015</ele>
        <time>2018-12-27T23:00:00Z</time>
      </trkpt>
      <trkpt lat="37.701370" lon="-121.920160">
        <ele>102.080</ele>
        <time>2018-12-27T23:00:20Z</time>
      </trkpt>
      <trkpt lat="37.701480" lon="-121.919630">
        <ele>101.449</ele>
        <time>2018-12-27T23:00:40Z</time>
      </trkpt>
      <trkpt lat="37.701480" lon="-121.919600">
        <ele>102.313</ele>
        <time>2018-12-27T23:01:00Z</time>
      </trkpt>
      <trkpt lat="37.701500" lon="-121.919510">
        <ele>102.919</ele>
        <time>2018-12-27T23:01:20Z</time>
      </trkpt>
      <trkpt lat="37.701520" lon="-121.919350">
        <ele>102.916</ele>
        <time>2018-12-27T23:01:40Z</time>
      </trkpt>
      <trkpt lat="37.701610" lon="-121.918660">
        <ele>102.770</ele>
        <time>2018-12-27T23:02:00Z</time>
      </trkpt>
      <trkpt lat="37.701660" lon="-121.918250">
        <ele>102.763</ele>
        <time>2018-12-27T23:02:20Z</time>
      </trkpt>
      <trkpt lat="37.701680" lon="-121.917980">
        <ele>102.644</ele>
        <time>2018-12-27T23:02:40Z</time>
      </trkpt>
      <trkpt lat="37.701700" lon="-121.917690">
        <ele>102.718</ele>
        <time>2018-12-27T23:03:00Z</time>
      </trkpt>
      <trkpt lat="37.701720" lon="-121.917340">
        <ele>102.708</ele>
        <time>2018-12-27T23:03:20Z</time>
      </trkpt>
      <trkpt lat="37.701730" lon="-121.917040">
        <ele>103.769</ele>
        <time>2018-12-27T23:03:40Z</time>
      </trkpt>
      <trkpt lat="37.701740" lon="-121.916730">
        <ele>103.277</ele>
        <time>2018-12-27T23:04:00Z</time>
      </trkpt>
      <trkpt lat="37.701730" lon="-121.915660">
        <ele>102.512</ele>
        <time>2018-12-27T23:04:20Z</time>
      </trkpt>
      <trkpt lat="37.701710" lon="-121.914570">
        <ele>102.081</ele>
        <time>2018-12-27T23:04:40Z</time>
      </trkpt>
      <trkpt lat="37.701700" lon="-121.913660">
        <ele>101.875</ele>
        <time>2018-12-27T23:05:00Z</time>
      </trkpt>
      <trkpt lat="37.701700" lon="-121.913240">
        <ele>101.731</ele>
        <time>2018-12-27T23:05:20Z</time>
      </trkpt>
      <trkpt lat="37.701650" lon="-121.911690">
        <ele>101.238</ele>
        <time>2018-12-27T23:05:40Z</time>
      </trkpt>
      <trkpt lat="37.701640" lon="-121.911110">
        <ele>100.912</ele>
        <time>2018-12-27T23:06:00Z</time>
      </trkpt>
      <trkpt lat="37.701630" lon="-121.910830">
        <ele>100.925</ele>
        <time>2018-12-27T23:06:20Z</time>
      </trkpt>
      <trkpt lat="37.701620" lon="-121.910430">
        <ele>100.826</ele>
        <time>2018-12-27T23:06:40Z</time>
      </trkpt>
      <trkpt lat="37.701610" lon="-121.910150">
        <ele>100.708</ele>
        <time>2018-12-27T23:07:00Z</time>
      </trkpt>
      <trkpt lat="37.701610" lon="-121.909900">
        <ele>100.608</ele>
        <time>2018-12-27T23:07:20Z</time>
      </trkpt>
      <trkpt lat="37.701600" lon="-121.909600">
        <ele>100.665</ele>
        <time>2018-12-27T23:07:40Z</time>
      </trkpt>
      <trkpt lat="37.701590" lon="-121.909340">
        <ele>100.613</ele>
        <time>2018-12-27T23:08:00Z</time>
      </trkpt>
      <trkpt lat="37.701580" lon="-121.908840">
        <ele>100.668</ele>
        <time>2018-12-27T23:08:20Z</time>
      </trkpt>
      <trkpt lat="37.701560" lon="-121.907350">
        <ele>100.647</ele>
        <time>2018-12-27T23:08:40Z</time>
      </trkpt>
      <trkpt lat="37.701550" lon="-121.906850">
        <ele>100.531</ele>
        <time>2018-12-27T23:09:00Z</time>
      </trkpt>
      <trkpt lat="37.701540" lon="-121.906200">
        <ele>100.517</ele>
        <time>2018-12-27T23:09:20Z</time>
      </trkpt>
      <trkpt lat="37.701530" lon="-121.905790">
        <ele>100.514</ele>
        <time>2018-12-27T23:09:40Z</time>
      </trkpt>
      <trkpt lat="37.701520" lon="-121.905450">
        <ele>100.528</ele>
        <time>2018-12-27T23:10:00Z</time>
      </trkpt>
      <trkpt lat="37.701500" lon="-121.904120">
        <ele>100.647</ele>
        <time>2018-12-27T23:10:20Z</time>
      </trkpt>
      <trkpt lat="37.701500" lon="-121.903770">
        <ele>100.829</ele>
        <time>2018-12-27T23:10:40Z</time>
      </trkpt>
      <trkpt lat="37.701460" lon="-121.901960">
        <ele>103.421</ele>
        <time>2018-12-27T23:11:00Z</time>
      </trkpt>
      <trkpt lat="37.701440" lon="-121.900470">
        <ele>105.408</ele>
        <time>2018-12-27T23:11:20Z</time>
      </trkpt>
      <trkpt lat="37.701420" lon="-121.898730">
        <ele>108.437</ele>
        <time>2018-12-27T23:11:40Z</time>
      </trkpt>
      <trkpt lat="37.701410" lon="-121.898210">
        <ele>105.685</ele>
        <time>2018-12-27T23:12:00Z</time>
      </trkpt>
      <trkpt lat="37.701400" lon="-121.897380">
        <ele>106.370</ele>
        <time>2018-12-27T23:12:20Z</time>
      </trkpt>
      <trkpt lat="37.701390" lon="-121.893180">
        <ele>103.949</ele>
        <time>2018-12-27T23:12:40Z</time>
      </trkpt>
      <trkpt lat="37.701400" lon="-121.891290">
        <ele>104.023</ele>
        <time>2018-12-27T23:13:00Z</time>
      </trkpt>
      <trkpt lat="37.701390" lon="-121.890250">
        <ele>104.279</ele>
        <time>2018-12-27T23:13:20Z</time>
      </trkpt>
      <trkpt lat="37.701390" lon="-121.890010">
        <ele>104.386</ele>
        <time>2018-12-27T23:13:40Z</time>
      </trkpt>
      <trkpt lat="37.701370" lon="-121.889130">
        <ele>104.720</ele>
        <time>2018-12-27T23:14:00Z</time>
      </trkpt>
      <trkpt lat="37.701370" lon="-121.888590">
        <ele>104.953</ele>
        <time>2018-12-27T23:14:20Z</time>
      </trkpt>
      <trkpt lat="37.701360" lon="-121.888440">
        <ele>105.004</ele>
        <time>2018-12-27T23:14:40Z</time>
      </trkpt>
      <trkpt lat="37.701360" lon="-121.888160">
        <ele>105.114</ele>
        <time>2018-12-27T23:15:00Z</time>
      </trkpt>
      <trkpt lat="37.701360" lon="-121.887410">
        <ele>105.408</ele>
        <time>2018-12-27T23:15:20Z</time>
      </trkpt>
      <trkpt lat="37.701360" lon="-121.886990">
        <ele>105.438</ele>
        <time>2018-12-27T23:15:40Z</time>
      </trkpt>
      <trkpt lat="37.701360" lon="-121.886560">
        <ele>105.796</ele>
        <time>2018-12-27T23:16:00Z</time>
      </trkpt>
      <trkpt lat="37.701350" lon="-121.884910">
        <ele>106.271</ele>
        <time>2018-12-27T23:16:20Z</time>
      </trkpt>
      <trkpt lat="37.701350" lon="-121.884170">
        <ele>106.520</ele>
        <time>2018-12-27T23:16:40Z</time>
      </trkpt>
      <trkpt lat="37.701350" lon="-121.883300">
        <ele>106.674</ele>
        <time>2018-12-27T23:17:00Z</time>
      </trkpt>
      <trkpt lat="37.701360" lon="-121.880470">
        <ele>107.610</ele>
        <time>2018-12-27T23:17:20Z</time>
      </trkpt>
      <trkpt lat="37.701360" lon="-121.879410">
        <ele>108.377</ele>
        <time>2018-12-27T23:17:40Z</time>
      </trkpt>
      <trkpt lat="37.701370" lon="-121.879130">
        <ele>105.041</ele>
        <time>2018-12-27T23:18:00Z</time>
      </trkpt>
      <trkpt lat="37.701370" lon="-121.878840">
        <ele>106.696</ele>
        <time>2018-12-27T23:18:20Z</time>
      </trkpt>
      <trkpt lat="37.701380" lon="-121.877330">
        <ele>107.531</ele>
        <time>2018-12-27T23:18:40Z</time>
      </trkpt>
      <trkpt lat="37.701360" lon="-121.875530">
        <ele>107.124</ele>
        <time>2018-12-27T23:19:00Z</time>
      </trkpt>
      <trkpt lat="37.701370" lon="-121.873330">
        <ele>106.608</ele>
        <time>2018-12-27T23:19:20Z</time>
      </trkpt>
      <trkpt lat="37.701320" lon="-121.870940">
        <ele>106.352</ele>
        <time>2018-12-27T23:19:40Z</time>
      </trkpt>
      <trkpt lat="37.701310" lon="-121.870290">
        <ele>106.350</ele>
        <time>2018-12-27T23:20:00Z</time>
      </trkpt>
      <trkpt lat="37.701290" lon="-121.867470">
        <ele>106.435</ele>
        <time>2018-12-27T23:20:20Z</time>
      </trkpt>
      <trkpt lat="37.701290" lon="-121.867130">
        <ele>106.414</ele>
        <time>2018-12-27T23:20:40Z</time>
      </trkpt>
      <trkpt lat="37.701280" lon="-121.866390">
        <ele>106.448</ele>
        <time>2018-12-27T23:21:00Z</time>
      </trkpt>
      <trkpt lat="37.701280" lon="-121.865840">
        <ele>106.544</ele>
        <time>2018-12-27T23:21:20Z</time>
      </trkpt>
      <trkpt lat="37.701260" lon="-121.864370">
        <ele>106.511</ele>
        <time>2018-12-27T23:21:40Z</time>
      </trkpt>
      <trkpt lat="37.701250" lon="-121.863320">
        <ele>106.575</ele>
        <time>2018-12-27T23:22:00Z</time>
      </trkpt>
      <trkpt lat="37.701240" lon="-121.862610">
        <ele>106.581</ele>
        <time>2018-12-27T23:22:20Z</time>
      </trkpt>
      <trkpt lat="37.701220" lon="-121.860010">
        <ele>106.661</ele>
        <time>2018-12-27T23:22:40Z</time>
      </trkpt>
      <trkpt lat="37.701200" lon="-121.858140">
        <ele>106.517</ele>
        <time>2018-12-27T23:23:00Z</time>
      </trkpt>
      <trkpt lat="37.701160" lon="-121.853560">
        <ele>106.808</ele>
        <time>2018-12-27T23:23:20Z</time>
      </trkpt>
      <trkpt lat="37.701140" lon="-121.850810">
        <ele>108.221</ele>
        <time>2018-12-27T23:23:40Z</time>
      </trkpt>
      <trkpt lat="37.701120" lon="-121.847980">
        <ele>108.739</ele>
        <time>2018-12-27T23:24:00Z</time>
      </trkpt>
      <trkpt lat="37.701120" lon="-121.847750">
        <ele>108.754</ele>
        <time>2018-12-27T23:24:20Z</time>
      </trkpt>
      <trkpt lat="37.701110" lon="-121.847590">
        <ele>108.753</ele>
        <time>2018-12-27T23:24:40Z</time>
      </trkpt>
      <trkpt lat="37.701110" lon="-121.847090">
        <ele>108.827</ele>
        <time>2018-12-27T23:25:00Z</time>
      </trkpt>
      <trkpt lat="37.701090" lon="-121.844500">
        <ele>109.553</ele>
        <time>2018-12-27T23:25:20Z</time>
      </trkpt>
      <trkpt lat="37.701080" lon="-121.843960">
        <ele>109.790</ele>
        <time>2018-12-27T23:25:40Z</time>
      </trkpt>
      <trkpt lat="37.701080" lon="-121.843220">
        <ele>110.134</ele>
        <time>2018-12-27T23:26:00Z</time>
      </trkpt>
      <trkpt lat="37.701070" lon="-121.842740">
        <ele>110.345</ele>
        <time>2018-12-27T23:26:20Z</time>
      </trkpt>
      <trkpt lat="37.701070" lon="-121.842410">
        <ele>110.447</ele>
        <time>2018-12-27T23:26:40Z</time>
      </trkpt>
      <trkpt lat="37.701050" lon="-121.841520">
        <ele>110.911</ele>
        <time>2018-12-27T23:27:00Z</time>
      </trkpt>
      <trkpt lat="37.701050" lon="-121.841190">
        <ele>111.108</ele>
        <time>2018-12-27T23:27:20Z</time>
      </trkpt>
      <trkpt lat="37.701040" lon="-121.840850">
        <ele>111.347</ele>
        <time>2018-12-27T23:27:40Z</time>
      </trkpt>
      <trkpt lat="37.701040" lon="-121.840200">
        <ele>111.675</ele>
        <time>2018-12-27T23:28:00Z</time>
      </trkpt>
      <trkpt lat="37.701020" lon="-121.837660">
        <ele>113.010</ele>
        <time>2018-12-27T23:28:20Z</time>
      </trkpt>
      <trkpt lat="37.700980" lon="-121.835070">
        <ele>115.129</ele>
        <time>2018-12-27T23:28:40Z</time>
      </trkpt>
      <trkpt lat="37.700960" lon="-121.833230">
        <ele>116.893</ele>
        <time>2018-12-27T23:29:00Z</time>
      </trkpt>
      <trkpt lat="37.700940" lon="-121.830260">
        <ele>119.459</ele>
        <time>2018-12-27T23:29:20Z</time>
      </trkpt>
      <trkpt lat="37.700930" lon="-121.829840">
        <ele>119.796</ele>
        <time>2018-12-27T23:29:40Z</time>
      </trkpt>
      <trkpt lat="37.700910" lon="-121.826710">
        <ele>122.330</ele>
        <time>2018-12-27T23:30:00Z</time>
      </trkpt>
      <trkpt lat="37.700890" lon="-121.824330">
        <ele>123.284</ele>
        <time>2018-12-27T23:30:20Z</time>
      </trkpt>
      <trkpt lat="37.700880" lon="-121.823290">
        <ele>123.507</ele>
        <time>2018-12-27T23:30:40Z</time>
      </trkpt>
      <trkpt lat="37.700870" lon="-121.822850">
        <ele>123.117</ele>
        <time>2018-12-27T23:31:00Z</time>
      </trkpt>
      <trkpt lat="37.700870" lon="-121.821900">
        <ele>122.508</ele>
        <time>2018-12-27T23:31:20Z</time>
      </trkpt>
      <trkpt lat="37.700880" lon="-121.820890">
        <ele>122.771</ele>
        <time>2018-12-27T23:31:40Z</time>
      </trkpt>
      <trkpt lat="37.700860" lon="-121.818110">
        <ele>121.639</ele>
        <time>2018-12-27T23:32:00Z</time>
      </trkpt>
      <trkpt lat="37.700840" lon="-121.815960">
        <ele>123.784</ele>
        <time>2018-12-27T23:32:20Z</time>
      </trkpt>
      <trkpt lat="37.700820" lon="-121.814670">
        <ele>125.513</ele>
        <time>2018-12-27T23:32:40Z</time>
      </trkpt>
      <trkpt lat="37.700810" lon="-121.813790">
        <ele>126.877</ele>
        <time>2018-12-27T23:33:00Z</time>
      </trkpt>
      <trkpt lat="37.700780" lon="-121.810780">
        <ele>128.553</ele>
        <time>2018-12-27T23:33:20Z</time>
      </trkpt>
      <trkpt lat="37.700780" lon="-121.810290">
        <ele>128.580</ele>
        <time>2018-12-27T23:33:40Z</time>
      </trkpt>
      <trkpt lat="37.700770" lon="-121.809070">
        <ele>127.934</ele>
        <time>2018-12-27T23:34:00Z</time>
      </trkpt>
      <trkpt lat="37.700740" lon="-121.806020">
        <ele>127.997</ele>
        <time>2018-12-27T23:34:20Z</time>
      </trkpt>
      <trkpt lat="37.700710" lon="-121.802880">
        <ele>127.523</ele>
        <time>2018-12-27T23:34:40Z</time>
      </trkpt>
      <trkpt lat="37.700700" lon="-121.801380">
        <ele>127.225</ele>
        <time>2018-12-27T23:35:00Z</time>
      </trkpt>
      <trkpt lat="37.700690" lon="-121.799610">
        <ele>127.008</ele>
        <time>2018-12-27T23:35:20Z</time>
      </trkpt>
      <trkpt lat="37.700680" lon="-121.799010">
        <ele>127.022</ele>
        <time>2018-12-27T23:35:40Z</time>
      </trkpt>
      <trkpt lat="37.700660" lon="-121.797140">
        <ele>123.220</ele>
        <time>2018-12-27T23:36:00Z</time>
      </trkpt>
      <trkpt lat="37.700660" lon="-121.796810">
        <ele>125.615</ele>
        <time>2018-12-27T23:36:20Z</time>
      </trkpt>
      <trkpt lat="37.700640" lon="-121.795320">
        <ele>126.994</ele>
        <time>2018-12-27T23:36:40Z</time>
      </trkpt>
      <trkpt lat="37.700630" lon="-121.794910">
        <ele>127.478</ele>
        <time>2018-12-27T23:37:00Z</time>
      </trkpt>
      <trkpt lat="37.700620" lon="-121.794750">
        <ele>127.894</ele>
        <time>2018-12-27T23:37:20Z</time>
      </trkpt>
      <trkpt lat="37.700610" lon="-121.794590">
        <ele>128.221</ele>
        <time>2018-12-27T23:37:40Z</time>
      </trkpt>
      <trkpt lat="37.700590" lon="-121.794410">
        <ele>128.635</ele>
        <time>2018-12-27T23:38:00Z</time>
      </trkpt>
      <trkpt lat="37.700580" lon="-121.794260">
        <ele>128.746</ele>
        <time>2018-12-27T23:38:20Z</time>
      </trkpt>
      <trkpt lat="37.700550" lon="-121.794090">
        <ele>128.488</ele>
        <time>2018-12-27T23:38:40Z</time>
      </trkpt>
      <trkpt lat="37.700530" lon="-121.793940">
        <ele>128.516</ele>
        <time>2018-12-27T23:39:00Z</time>
      </trkpt>
      <trkpt lat="37.700500" lon="-121.793780">
        <ele>128.808</ele>
        <time>2018-12-27T23:39:20Z</time>
      </trkpt>
      <trkpt lat="37.700480" lon="-121.793640">
        <ele>129.187</ele>
        <time>2018-12-27T23:39:40Z</time>
      </trkpt>
      <trkpt lat="37.700410" lon="-121.793310">
        <ele>129.675</ele>
        <time>2018-12-27T23:40:00Z</time>
      </trkpt>
      <trkpt lat="37.700150" lon="-121.792130">
        <ele>132.060</ele>
        <time>2018-12-27T23:40:20Z</time>
      </trkpt>
      <trkpt lat="37.699960" lon="-121.791270">
        <ele>132.969</ele>
        <time>2018-12-27T23:40:40Z</time>
      </trkpt>
      <trkpt lat="37.699890" lon="-121.790960">
        <ele>133.173</ele>
        <time>2018-12-27T23:41:00Z</time>
      </trkpt>
      <trkpt lat="37.699820" lon="-121.790620">
        <ele>133.379</ele>
        <time>2018-12-27T23:41:20Z</time>
      </trkpt>
      <trkpt lat="37.699810" lon="-121.790620">
        <ele>133.336</ele>
        <time>2018-12-27T23:41:40Z</time>
      </trkpt>
      <trkpt lat="37.699690" lon="-121.790060">
        <ele>133.430</ele>
        <time>2018-12-27T23:42:00Z</time>
      </trkpt>
      <trkpt lat="37.699640" lon="-121.789820">
        <ele>133.949</ele>
        <time>2018-12-27T23:42:20Z</time>
      </trkpt>
      <trkpt lat="37.699590" lon="-121.789520">
        <ele>134.202</ele>
        <time>2018-12-27T23:42:40Z</time>
      </trkpt>
      <trkpt lat="37.699560" lon="-121.789340">
        <ele>133.922</ele>
        <time>2018-12-27T23:43:00Z</time>
      </trkpt>
      <trkpt lat="37.699510" lon="-121.789020">
        <ele>132.708</ele>
        <time>2018-12-27T23:43:20Z</time>
      </trkpt>
      <trkpt lat="37.699490" lon="-121.788850">
        <ele>132.797</ele>
        <time>2018-12-27T23:43:40Z</time>
      </trkpt>
      <trkpt lat="37.699460" lon="-121.788500">
        <ele>133.535</ele>
        <time>2018-12-27T23:44:00Z</time>
      </trkpt>
      <trkpt lat="37.699450" lon="-121.788360">
        <ele>133.920</ele>
        <time>2018-12-27T23:44:20Z</time>
      </trkpt>
      <trkpt lat="37.699440" lon="-121.788200">
        <ele>134.399</ele>
        <time>2018-12-27T23:44:40Z</time>
      </trkpt>
      <trkpt lat="37.699430" lon="-121.788010">
        <ele>134.533</ele>
        <time>2018-12-27T23:45:00Z</time>
      </trkpt>
      <trkpt lat="37.699410" lon="-121.787700">
        <ele>134.739</ele>
        <time>2018-12-27T23:45:20Z</time>
      </trkpt>
      <trkpt lat="37.699410" lon="-121.787520">
        <ele>134.836</ele>
        <time>2018-12-27T23:45:40Z</time>
      </trkpt>
      <trkpt lat="37.699410" lon="-121.787380">
        <ele>134.820</ele>
        <time>2018-12-27T23:46:00Z</time>
      </trkpt>
      <trkpt lat="37.699420" lon="-121.787220">
        <ele>134.827</ele>
        <time>2018-12-27T23:46:20Z</time>
      </trkpt>
      <trkpt lat="37.699420" lon="-121.786890">
        <ele>134.868</ele>
        <time>2018-12-27T23:46:40Z</time>
      </trkpt>
      <trkpt lat="37.699430" lon="-121.786710">
        <ele>134.714</ele>
        <time>2018-12-27T23:47:00Z</time>
      </trkpt>
      <trkpt lat="37.699430" lon="-121.786540">
        <ele>134.608</ele>
        <time>2018-12-27T23:47:20Z</time>
      </trkpt>
      <trkpt lat="37.699440" lon="-121.786380">
        <ele>134.485</ele>
        <time>2018-12-27T23:47:40Z</time>
      </trkpt>
      <trkpt lat="37.699470" lon="-121.786060">
        <ele>134.243</ele>
        <time>2018-12-27T23:48:00Z</time>
      </trkpt>
      <trkpt lat="37.699480" lon="-121.785880">
        <ele>134.488</ele>
        <time>2018-12-27T23:48:20Z</time>
      </trkpt>
      <trkpt lat="37.699510" lon="-121.785590">
        <ele>135.467</ele>
        <time>2018-12-27T23:48:40Z</time>
      </trkpt>
      <trkpt lat="37.699530" lon="-121.785410">
        <ele>136.181</ele>
        <time>2018-12-27T23:49:00Z</time>
      </trkpt>
      <trkpt lat="37.699560" lon="-121.785080">
        <ele>134.387</ele>
        <time>2018-12-27T23:49:20Z</time>
      </trkpt>
      <trkpt lat="37.699610" lon="-121.784630">
        <ele>129.144</ele>
        <time>2018-12-27T23:49:40Z</time>
      </trkpt>
      <trkpt lat="37.699830" lon="-121.782040">
        <ele>139.728</ele>
        <time>2018-12-27T23:50:00Z</time>
      </trkpt>
      <trkpt lat="37.700170" lon="-121.778170">
        <ele>145.022</ele>
        <time>2018-12-27T23:50:20Z</time>
      </trkpt>
      <trkpt lat="37.700210" lon="-121.777680">
        <ele>145.962</ele>
        <time>2018-12-27T23:50:40Z</time>
      </trkpt>
      <trkpt lat="37.700260" lon="-121.777180">
        <ele>146.708</ele>
        <time>2018-12-27T23:51:00Z</time>
      </trkpt>
      <trkpt lat="37.700310" lon="-121.776690">
        <ele>147.108</ele>
        <time>2018-12-27T23:51:20Z</time>
      </trkpt>
      <trkpt lat="37.700330" lon="-121.776510">
        <ele>147.265</ele>
        <time>2018-12-27T23:51:40Z</time>
      </trkpt>
      <trkpt lat="37.700350" lon="-121.776340">
        <ele>147.453</ele>
        <time>2018-12-27T23:52:00Z</time>
      </trkpt>
      <trkpt lat="37.700430" lon="-121.775710">
        <ele>148.088</ele>
        <time>2018-12-27T23:52:20Z</time>
      </trkpt>
      <trkpt lat="37.700460" lon="-121.775520">
        <ele>148.097</ele>
        <time>2018-12-27T23:52:40Z</time>
      </trkpt>
      <trkpt lat="37.700560" lon="-121.774900">
        <ele>147.321</ele>
        <time>2018-12-27T23:53:00Z</time>
      </trkpt>
      <trkpt lat="37.700690" lon="-121.774110">
        <ele>146.717</ele>
        <time>2018-12-27T23:53:20Z</time>
      </trkpt>
      <trkpt lat="37.700740" lon="-121.773810">
        <ele>141.644</ele>
        <time>2018-12-27T23:53:40Z</time>
      </trkpt>
      <trkpt lat="37.700790" lon="-121.773500">
        <ele>145.788</ele>
        <time>2018-12-27T23:54:00Z</time>
      </trkpt>
      <trkpt lat="37.701180" lon="-121.771130">
        <ele>145.374</ele>
        <time>2018-12-27T23:54:20Z</time>
      </trkpt>
      <trkpt lat="37.701280" lon="-121.770500">
        <ele>145.356</ele>
        <time>2018-12-27T23:54:40Z</time>
      </trkpt>
      <trkpt lat="37.701420" lon="-121.769680">
        <ele>144.121</ele>
        <time>2018-12-27T23:55:00Z</time>
      </trkpt>
      <trkpt lat="37.701450" lon="-121.769490">
        <ele>143.808</ele>
        <time>2018-12-27T23:55:20Z</time>
      </trkpt>
      <trkpt lat="37.701630" lon="-121.768420">
        <ele>144.440</ele>
        <time>2018-12-27T23:55:40Z</time>
      </trkpt>
      <trkpt lat="37.701680" lon="-121.768110">
        <ele>144.168</ele>
        <time>2018-12-27T23:56:00Z</time>
      </trkpt>
      <trkpt lat="37.701720" lon="-121.767870">
        <ele>144.123</ele>
        <time>2018-12-27T23:56:20Z</time>
      </trkpt>
      <trkpt lat="37.701810" lon="-121.767350">
        <ele>145.022</ele>
        <time>2018-12-27T23:56:40Z</time>
      </trkpt>
      <trkpt lat="37.701920" lon="-121.766690">
        <ele>144.986</ele>
        <time>2018-12-27T23:57:00Z</time>
      </trkpt>
      <trkpt lat="37.702000" lon="-121.766170">
        <ele>144.882</ele>
        <time>2018-12-27T23:57:20Z</time>
      </trkpt>
      <trkpt lat="37.702090" lon="-121.765640">
        <ele>145.529</ele>
        <time>2018-12-27T23:57:40Z</time>
      </trkpt>
      <trkpt lat="37.702180" lon="-121.765110">
        <ele>145.513</ele>
        <time>2018-12-27T23:58:00Z</time>
      </trkpt>
      <trkpt lat="37.702310" lon="-121.764300">
        <ele>145.867</ele>
        <time>2018-12-27T23:58:20Z</time>
      </trkpt>
      <trkpt lat="37.702410" lon="-121.763720">
        <ele>146.581</ele>
        <time>2018-12-27T23:58:40Z</time>
      </trkpt>
      <trkpt lat="37.702500" lon="-121.763060">
        <ele>146.719</ele>
        <time>2018-12-27T23:59:00Z</time>
      </trkpt>
      <trkpt lat="37.702610" lon="-121.762220">
        <ele>147.308</ele>
        <time>2018-12-27T23:59:20Z</time>
      </trkpt>
      <trkpt lat="37.702660" lon="-121.761710">
        <ele>147.859</ele>
        <time>2018-12-27T23:59:40Z</time>
      </trkpt>
      <trkpt lat="37.702710" lon="-121.761110">
        <ele>148.217</ele>
        <time>2018-12-28T00:00:00Z</time>
      </trkpt>
      <trkpt lat="37.702770" lon="-121.760390">
        <ele>148.732</ele>
        <time>2018-12-28T00:00:20Z</time>
      </trkpt>
      <trkpt lat="37.702800" lon="-121.759770">
        <ele>149.251</ele>
        <time>2018-12-28T00:00:40Z</time>
      </trkpt>
      <trkpt lat="37.702820" lon="-121.759350">
        <ele>145.885</ele>
        <time>2018-12-28T00:01:00Z</time>
      </trkpt>
      <trkpt lat="37.702840" lon="-121.758680">
        <ele>149.751</ele>
        <time>2018-12-28T00:01:20Z</time>
      </trkpt>
      <trkpt lat="37.702830" lon="-121.758220">
        <ele>149.838</ele>
        <time>2018-12-28T00:01:40Z</time>
      </trkpt>
      <trkpt lat="37.702830" lon="-121.757900">
        <ele>149.942</ele>
        <time>2018-12-28T00:02:00Z</time>
      </trkpt>
      <trkpt lat="37.702820" lon="-121.757330">
        <ele>150.311</ele>
        <time>2018-12-28T00:02:20Z</time>
      </trkpt>
      <trkpt lat="37.702800" lon="-121.756900">
        <ele>150.721</ele>
        <time>2018-12-28T00:02:40Z</time>
      </trkpt>
      <trkpt lat="37.702760" lon="-121.755900">
        <ele>152.603</ele>
        <time>2018-12-28T00:03:00Z</time>
      </trkpt>
      <trkpt lat="37.702580" lon="-121.751870">
        <ele>155.208</ele>
        <time>2018-12-28T00:03:20Z</time>
      </trkpt>
      <trkpt lat="37.702550" lon="-121.751170">
        <ele>154.994</ele>
        <time>2018-12-28T00:03:40Z</time>
      </trkpt>
      <trkpt lat="37.702490" lon="-121.749950">
        <ele>155.652</ele>
        <time>2018-12-28T00:04:00Z</time>
      </trkpt>
      <trkpt lat="37.702360" lon="-121.746920">
        <ele>157.477</ele>
        <time>2018-12-28T00:04:20Z</time>
      </trkpt>
      <trkpt lat="37.702330" lon="-121.746360">
        <ele>157.486</ele>
        <time>2018-12-28T00:04:40Z</time>
      </trkpt>
      <trkpt lat="37.702240" lon="-121.744160">
        <ele>159.860</ele>
        <time>2018-12-28T00:05:00Z</time>
      </trkpt>
      <trkpt lat="37.702230" lon="-121.743630">
        <ele>161.126</ele>
        <time>2018-12-28T00:05:20Z</time>
      </trkpt>
      <trkpt lat="37.702230" lon="-121.743150">
        <ele>161.813</ele>
        <time>2018-12-28T00:05:40Z</time>
      </trkpt>
      <trkpt lat="37.702240" lon="-121.742720">
        <ele>162.437</ele>
        <time>2018-12-28T00:06:00Z</time>
      </trkpt>
      <trkpt lat="37.702270" lon="-121.742220">
        <ele>162.693</ele>
        <time>2018-12-28T00:06:20Z</time>
      </trkpt>
      <trkpt lat="37.702330" lon="-121.741610">
        <ele>162.265</ele>
        <time>2018-12-28T00:06:40Z</time>
      </trkpt>
      <trkpt lat="37.702460" lon="-121.740590">
        <ele>161.421</ele>
        <time>2018-12-28T00:07:00Z</time>
      </trkpt>
      <trkpt lat="37.702550" lon="-121.740060">
        <ele>161.008</ele>
        <time>2018-12-28T00:07:20Z</time>
      </trkpt>
      <trkpt lat="37.702650" lon="-121.739540">
        <ele>160.812</ele>
        <time>2018-12-28T00:07:40Z</time>
      </trkpt>
      <trkpt lat="37.702760" lon="-121.739030">
        <ele>160.590</ele>
        <time>2018-12-28T00:08:00Z</time>
      </trkpt>
      <trkpt lat="37.702960" lon="-121.738200">
        <ele>160.115</ele>
        <time>2018-12-28T00:08:20Z</time>
      </trkpt>
      <trkpt lat="37.703060" lon="-121.737850">
        <ele>160.044</ele>
        <time>2018-12-28T00:08:40Z</time>
      </trkpt>
      <trkpt lat="37.703190" lon="-121.737460">
        <ele>160.198</ele>
        <time>2018-12-28T00:09:00Z</time>
      </trkpt>
      <trkpt lat="37.703310" lon="-121.737110">
        <ele>160.174</ele>
        <time>2018-12-28T00:09:20Z</time>
      </trkpt>
      <trkpt lat="37.703410" lon="-121.736820">
        <ele>159.751</ele>
        <time>2018-12-28T00:09:40Z</time>
      </trkpt>
      <trkpt lat="37.703600" lon="-121.736330">
        <ele>159.985</ele>
        <time>2018-12-28T00:10:00Z</time>
      </trkpt>
      <trkpt lat="37.703780" lon="-121.735880">
        <ele>160.152</ele>
        <time>2018-12-28T00:10:20Z</time>
      </trkpt>
      <trkpt lat="37.704060" lon="-121.735240">
        <ele>160.153</ele>
        <time>2018-12-28T00:10:40Z</time>
      </trkpt>
      <trkpt lat="37.704380" lon="-121.734490">
        <ele>160.008</ele>
        <time>2018-12-28T00:11:00Z</time>
      </trkpt>
      <trkpt lat="37.704780" lon="-121.733540">
        <ele>160.208</ele>
        <time>2018-12-28T00:11:20Z</time>
      </trkpt>
      <trkpt lat="37.705440" lon="-121.731950">
        <ele>160.628</ele>
        <time>2018-12-28T00:11:40Z</time>
      </trkpt>
      <trkpt lat="37.706150" lon="-121.730260">
        <ele>161.246</ele>
        <time>2018-12-28T00:12:00Z</time>
      </trkpt>
      <trkpt lat="37.706690" lon="-121.728990">
        <ele>161.451</ele>
        <time>2018-12-28T00:12:20Z</time>
      </trkpt>
      <trkpt lat="37.706970" lon="-121.728330">
        <ele>161.770</ele>
        <time>2018-12-28T00:12:40Z</time>
      </trkpt>
      <trkpt lat="37.707280" lon="-121.727620">
        <ele>162.074</ele>
        <time>2018-12-28T00:13:00Z</time>
      </trkpt>
      <trkpt lat="37.710650" lon="-121.719630">
        <ele>164.620</ele>
        <time>2018-12-28T00:13:20Z</time>
      </trkpt>
      <trkpt lat="37.710940" lon="-121.718940">
        <ele>164.737</ele>
        <time>2018-12-28T00:13:40Z</time>
      </trkpt>
      <trkpt lat="37.711530" lon="-121.717530">
        <ele>164.911</ele>
        <time>2018-12-28T00:14:00Z</time>
      </trkpt>
      <trkpt lat="37.712100" lon="-121.716190">
        <ele>165.737</ele>
        <time>2018-12-28T00:14:20Z</time>
      </trkpt>
      <trkpt lat="37.712150" lon="-121.716060">
        <ele>165.749</ele>
        <time>2018-12-28T00:14:40Z</time>
      </trkpt>
      <trkpt lat="37.712380" lon="-121.715530">
        <ele>166.213</ele>
        <time>2018-12-28T00:15:00Z</time>
      </trkpt>
      <trkpt lat="37.712550" lon="-121.715110">
        <ele>166.308</ele>
        <time>2018-12-28T00:15:20Z</time>
      </trkpt>
      <trkpt lat="37.713220" lon="-121.713520">
        <ele>167.396</ele>
        <time>2018-12-28T00:15:40Z</time>
      </trkpt>
      <trkpt lat="37.713830" lon="-121.712090">
        <ele>168.114</ele>
        <time>2018-12-28T00:16:00Z</time>
      </trkpt>
      <trkpt lat="37.713950" lon="-121.711820">
        <ele>168.359</ele>
        <time>2018-12-28T00:16:20Z</time>
      </trkpt>
      <trkpt lat="37.714330" lon="-121.711000">
        <ele>168.938</ele>
        <time>2018-12-28T00:16:40Z</time>
      </trkpt>
      <trkpt lat="37.714430" lon="-121.710760">
        <ele>169.032</ele>
        <time>2018-12-28T00:17:00Z</time>
      </trkpt>
      <trkpt lat="37.714780" lon="-121.709940">
        <ele>169.548</ele>
        <time>2018-12-28T00:17:20Z</time>
      </trkpt>
      <trkpt lat="37.715010" lon="-121.709380">
        <ele>169.965</ele>
        <time>2018-12-28T00:17:40Z</time>
      </trkpt>
      <trkpt lat="37.715380" lon="-121.708520">
        <ele>170.689</ele>
        <time>2018-12-28T00:18:00Z</time>
      </trkpt>
      <trkpt lat="37.715790" lon="-121.707570">
        <ele>171.448</ele>
        <time>2018-12-28T00:18:20Z</time>
      </trkpt>
      <trkpt lat="37.715950" lon="-121.707190">
        <ele>171.761</ele>
        <time>2018-12-28T00:18:40Z</time>
      </trkpt>
      <trkpt lat="37.716040" lon="-121.706970">
        <ele>171.917</ele>
        <time>2018-12-28T00:19:00Z</time>
      </trkpt>
      <trkpt lat="37.716140" lon="-121.706690">
        <ele>172.108</ele>
        <time>2018-12-28T00:19:20Z</time>
      </trkpt>
      <trkpt lat="37.716250" lon="-121.706400">
        <ele>173.037</ele>
        <time>2018-12-28T00:19:40Z</time>
      </trkpt>
      <trkpt lat="37.716340" lon="-121.706150">
        <ele>173.215</ele>
        <time>2018-12-28T00:20:00Z</time>
      </trkpt>
      <trkpt lat="37.716450" lon="-121.705810">
        <ele>174.550</ele>
        <time>2018-12-28T00:20:20Z</time>
      </trkpt>
      <trkpt lat="37.716550" lon="-121.705490">
        <ele>175.529</ele>
        <time>2018-12-28T00:20:40Z</time>
      </trkpt>
      <trkpt lat="37.716650" lon="-121.705190">
        <ele>176.343</ele>
        <time>2018-12-28T00:21:00Z</time>
      </trkpt>
      <trkpt lat="37.716780" lon="-121.704710">
        <ele>178.469</ele>
        <time>2018-12-28T00:21:20Z</time>
      </trkpt>
      <trkpt lat="37.716860" lon="-121.704430">
        <ele>179.086</ele>
        <time>2018-12-28T00:21:40Z</time>
      </trkpt>
      <trkpt lat="37.716960" lon="-121.704000">
        <ele>180.810</ele>
        <time>2018-12-28T00:22:00Z</time>
      </trkpt>
      <trkpt lat="37.717020" lon="-121.703770">
        <ele>181.184</ele>
        <time>2018-12-28T00:22:20Z</time>
      </trkpt>
      <trkpt lat="37.717090" lon="-121.703430">
        <ele>183.107</ele>
        <time>2018-12-28T00:22:40Z</time>
      </trkpt>
      <trkpt lat="37.717160" lon="-121.703090">
        <ele>183.517</ele>
        <time>2018-12-28T00:23:00Z</time>
      </trkpt>
      <trkpt lat="37.717240" lon="-121.702700">
        <ele>184.508</ele>
        <time>2018-12-28T00:23:20Z</time>
      </trkpt>
      <trkpt lat="37.717500" lon="-121.701540">
        <ele>189.311</ele>
        <time>2018-12-28T00:23:40Z</time>
      </trkpt>
      <trkpt lat="37.717570" lon="-121.701230">
        <ele>189.919</ele>
        <time>2018-12-28T00:24:00Z</time>
      </trkpt>
      <trkpt lat="37.717720" lon="-121.700540">
        <ele>178.144</ele>
        <time>2018-12-28T00:24:20Z</time>
      </trkpt>
      <trkpt lat="37.717750" lon="-121.700390">
        <ele>181.053</ele>
        <time>2018-12-28T00:24:40Z</time>
      </trkpt>
      <trkpt lat="37.717770" lon="-121.700260">
        <ele>185.847</ele>
        <time>2018-12-28T00:25:00Z</time>
      </trkpt>
      <trkpt lat="37.717780" lon="-121.700170">
        <ele>189.083</ele>
        <time>2018-12-28T00:25:20Z</time>
      </trkpt>
      <trkpt lat="37.717800" lon="-121.700050">
        <ele>191.990</ele>
        <time>2018-12-28T00:25:40Z</time>
      </trkpt>
      <trkpt lat="37.718010" lon="-121.699070">
        <ele>197.714</ele>
        <time>2018-12-28T00:26:00Z</time>
      </trkpt>
      <trkpt lat="37.718230" lon="-121.697990">
        <ele>202.383</ele>
        <time>2018-12-28T00:26:20Z</time>
      </trkpt>
      <trkpt lat="37.718410" lon="-121.697120">
        <ele>205.425</ele>
        <time>2018-12-28T00:26:40Z</time>
      </trkpt>
      <trkpt lat="37.718550" lon="-121.696490">
        <ele>193.517</ele>
        <time>2018-12-28T00:27:00Z</time>
      </trkpt>
      <trkpt lat="37.718600" lon="-121.696250">
        <ele>200.408</ele>
        <time>2018-12-28T00:27:20Z</time>
      </trkpt>
      <trkpt lat="37.718640" lon="-121.696020">
        <ele>202.721</ele>
        <time>2018-12-28T00:27:40Z</time>
      </trkpt>
      <trkpt lat="37.718810" lon="-121.695160">
        <ele>213.689</ele>
        <time>2018-12-28T00:28:00Z</time>
      </trkpt>
      <trkpt lat="37.718810" lon="-121.695130">
        <ele>213.894</ele>
        <time>2018-12-28T00:28:20Z</time>
      </trkpt>
      <trkpt lat="37.718950" lon="-121.694470">
        <ele>217.543</ele>
        <time>2018-12-28T00:28:40Z</time>
      </trkpt>
      <trkpt lat="37.719110" lon="-121.693710">
        <ele>219.597</ele>
        <time>2018-12-28T00:29:00Z</time>
      </trkpt>
      <trkpt lat="37.719300" lon="-121.692780">
        <ele>222.483</ele>
        <time>2018-12-28T00:29:20Z</time>
      </trkpt>
      <trkpt lat="37.719680" lon="-121.690930">
        <ele>229.740</ele>
        <time>2018-12-28T00:29:40Z</time>
      </trkpt>
      <trkpt lat="37.719950" lon="-121.689620">
        <ele>234.774</ele>
        <time>2018-12-28T00:30:00Z</time>
      </trkpt>
      <trkpt lat="37.720170" lon="-121.688560">
        <ele>238.599</ele>
        <time>2018-12-28T00:30:20Z</time>
      </trkpt>
      <trkpt lat="37.720290" lon="-121.687970">
        <ele>241.107</ele>
        <time>2018-12-28T00:30:40Z</time>
      </trkpt>
      <trkpt lat="37.720390" lon="-121.687500">
        <ele>242.327</ele>
        <time>2018-12-28T00:31:00Z</time>
      </trkpt>
      <trkpt lat="37.720480" lon="-121.687090">
        <ele>244.108</ele>
        <time>2018-12-28T00:31:20Z</time>
      </trkpt>
      <trkpt lat="37.720580" lon="-121.686670">
        <ele>245.712</ele>
        <time>2018-12-28T00:31:40Z</time>
      </trkpt>
      <trkpt lat="37.720650" lon="-121.686350">
        <ele>246.810</ele>
        <time>2018-12-28T00:32:00Z</time>
      </trkpt>
      <trkpt lat="37.720700" lon="-121.686140">
        <ele>246.795</ele>
        <time>2018-12-28T00:32:20Z</time>
      </trkpt>
      <trkpt lat="37.720940" lon="-121.685200">
        <ele>250.884</ele>
        <time>2018-12-28T00:32:40Z</time>
      </trkpt>
      <trkpt lat="37.721180" lon="-121.684240">
        <ele>254.538</ele>
        <time>2018-12-28T00:33:00Z</time>
      </trkpt>
      <trkpt lat="37.721280" lon="-121.683850">
        <ele>254.874</ele>
        <time>2018-12-28T00:33:20Z</time>
      </trkpt>
      <trkpt lat="37.721530" lon="-121.682830">
        <ele>257.141</ele>
        <time>2018-12-28T00:33:40Z</time>
      </trkpt>
      <trkpt lat="37.721580" lon="-121.682580">
        <ele>257.635</ele>
        <time>2018-12-28T00:34:00Z</time>
      </trkpt>
      <trkpt lat="37.721610" lon="-121.682400">
        <ele>257.884</ele>
        <time>2018-12-28T00:34:20Z</time>
      </trkpt>
      <trkpt lat="37.721640" lon="-121.682230">
        <ele>258.407</ele>
        <time>2018-12-28T00:34:40Z</time>
      </trkpt>
      <trkpt lat="37.721680" lon="-121.681960">
        <ele>259.617</ele>
        <time>2018-12-28T00:35:00Z</time>
      </trkpt>
      <trkpt lat="37.721710" lon="-121.681650">
        <ele>260.608</ele>
        <time>2018-12-28T00:35:20Z</time>
      </trkpt>
      <trkpt lat="37.721720" lon="-121.681430">
        <ele>261.231</ele>
        <time>2018-12-28T00:35:40Z</time>
      </trkpt>
      <trkpt lat="37.721740" lon="-121.681010">
        <ele>261.979</ele>
        <time>2018-12-28T00:36:00Z</time>
      </trkpt>
      <trkpt lat="37.721750" lon="-121.680780">
        <ele>262.274</ele>
        <time>2018-12-28T00:36:20Z</time>
      </trkpt>
      <trkpt lat="37.721740" lon="-121.680520">
        <ele>262.883</ele>
        <time>2018-12-28T00:36:40Z</time>
      </trkpt>
      <trkpt lat="37.721730" lon="-121.680250">
        <ele>263.257</ele>
        <time>2018-12-28T00:37:00Z</time>
      </trkpt>
      <trkpt lat="37.721710" lon="-121.679950">
        <ele>263.663</ele>
        <time>2018-12-28T00:37:20Z</time>
      </trkpt>
      <trkpt lat="37.721670" lon="-121.679610">
        <ele>263.730</ele>
        <time>2018-12-28T00:37:40Z</time>
      </trkpt>
      <trkpt lat="37.721620" lon="-121.679100">
        <ele>264.724</ele>
        <time>2018-12-28T00:38:00Z</time>
      </trkpt>
      <trkpt lat="37.721510" lon="-121.678050">
        <ele>268.168</ele>
        <time>2018-12-28T00:38:20Z</time>
      </trkpt>
      <trkpt lat="37.721410" lon="-121.677120">
        <ele>271.942</ele>
        <time>2018-12-28T00:38:40Z</time>
      </trkpt>
      <trkpt lat="37.721380" lon="-121.676840">
        <ele>271.226</ele>
        <time>2018-12-28T00:39:00Z</time>
      </trkpt>
      <trkpt lat="37.721360" lon="-121.676630">
        <ele>270.708</ele>
        <time>2018-12-28T00:39:20Z</time>
      </trkpt>
      <trkpt lat="37.721310" lon="-121.676340">
        <ele>270.399</ele>
        <time>2018-12-28T00:39:40Z</time>
      </trkpt>
      <trkpt lat="37.721240" lon="-121.675970">
        <ele>271.957</ele>
        <time>2018-12-28T00:40:00Z</time>
      </trkpt>
      <trkpt lat="37.721210" lon="-121.675810">
        <ele>274.332</ele>
        <time>2018-12-28T00:40:20Z</time>
      </trkpt>
      <trkpt lat="37.721150" lon="-121.675590">
        <ele>276.311</ele>
        <time>2018-12-28T00:40:40Z</time>
      </trkpt>
      <trkpt lat="37.721090" lon="-121.675370">
        <ele>275.555</ele>
        <time>2018-12-28T00:41:00Z</time>
      </trkpt>
      <trkpt lat="37.720980" lon="-121.675020">
        <ele>272.871</ele>
        <time>2018-12-28T00:41:20Z</time>
      </trkpt>
      <trkpt lat="37.720950" lon="-121.674940">
        <ele>273.818</ele>
        <time>2018-12-28T00:41:40Z</time>
      </trkpt>
      <trkpt lat="37.720870" lon="-121.674710">
        <ele>275.032</ele>
        <time>2018-12-28T00:42:00Z</time>
      </trkpt>
      <trkpt lat="37.720760" lon="-121.674450">
        <ele>275.095</ele>
        <time>2018-12-28T00:42:20Z</time>
      </trkpt>
      <trkpt lat="37.720690" lon="-121.674270">
        <ele>275.049</ele>
        <time>2018-12-28T00:42:40Z</time>
      </trkpt>
      <trkpt lat="37.720620" lon="-121.674130">
        <ele>276.223</ele>
        <time>2018-12-28T00:43:00Z</time>
      </trkpt>
      <trkpt lat="37.720530" lon="-121.673940">
        <ele>276.808</ele>
        <time>2018-12-28T00:43:20Z</time>
      </trkpt>
      <trkpt lat="37.720470" lon="-121.673830">
        <ele>276.732</ele>
        <time>2018-12-28T00:43:40Z</time>
      </trkpt>
      <trkpt lat="37.720400" lon="-121.673700">
        <ele>276.930</ele>
        <time>2018-12-28T00:44:00Z</time>
      </trkpt>
      <trkpt lat="37.720300" lon="-121.673520">
        <ele>278.235</ele>
        <time>2018-12-28T00:44:20Z</time>
      </trkpt>
      <trkpt lat="37.720200" lon="-121.673350">
        <ele>278.474</ele>
        <time>2018-12-28T00:44:40Z</time>
      </trkpt>
      <trkpt lat="37.720030" lon="-121.673090">
        <ele>280.198</ele>
        <time>2018-12-28T00:45:00Z</time>
      </trkpt>
      <trkpt lat="37.719910" lon="-121.672930">
        <ele>279.524</ele>
        <time>2018-12-28T00:45:20Z</time>
      </trkpt>
      <trkpt lat="37.719820" lon="-121.672780">
        <ele>280.691</ele>
        <time>2018-12-28T00:45:40Z</time>
      </trkpt>
      <trkpt lat="37.719580" lon="-121.672440">
        <ele>281.635</ele>
        <time>2018-12-28T00:46:00Z</time>
      </trkpt>
      <trkpt lat="37.719350" lon="-121.672090">
        <ele>282.861</ele>
        <time>2018-12-28T00:46:20Z</time>
      </trkpt>
      <trkpt lat="37.719140" lon="-121.671750">
        <ele>284.521</ele>
        <time>2018-12-28T00:46:40Z</time>
      </trkpt>
      <trkpt lat="37.719000" lon="-121.671500">
        <ele>285.213</ele>
        <time>2018-12-28T00:47:00Z</time>
      </trkpt>
      <trkpt lat="37.718900" lon="-121.671330">
        <ele>285.908</ele>
        <time>2018-12-28T00:47:20Z</time>
      </trkpt>
      <trkpt lat="37.718800" lon="-121.671110">
        <ele>286.069</ele>
        <time>2018-12-28T00:47:40Z</time>
      </trkpt>
      <trkpt lat="37.718720" lon="-121.670930">
        <ele>286.447</ele>
        <time>2018-12-28T00:48:00Z</time>
      </trkpt>
      <trkpt lat="37.718610" lon="-121.670700">
        <ele>286.532</ele>
        <time>2018-12-28T00:48:20Z</time>
      </trkpt>
      <trkpt lat="37.718520" lon="-121.670470">
        <ele>287.711</ele>
        <time>2018-12-28T00:48:40Z</time>
      </trkpt>
      <trkpt lat="37.718430" lon="-121.670230">
        <ele>288.145</ele>
        <time>2018-12-28T00:49:00Z</time>
      </trkpt>
      <trkpt lat="37.718360" lon="-121.670040">
        <ele>288.381</ele>
        <time>2018-12-28T00:49:20Z</time>
      </trkpt>
      <trkpt lat="37.718250" lon="-121.669690">
        <ele>289.858</ele>
        <time>2018-12-28T00:49:40Z</time>
      </trkpt>
      <trkpt lat="37.718200" lon="-121.669520">
        <ele>290.472</ele>
        <time>2018-12-28T00:50:00Z</time>
      </trkpt>
      <trkpt lat="37.718120" lon="-121.669180">
        <ele>291.682</ele>
        <time>2018-12-28T00:50:20Z</time>
      </trkpt>
      <trkpt lat="37.718050" lon="-121.668880">
        <ele>291.643</ele>
        <time>2018-12-28T00:50:40Z</time>
      </trkpt>
      <trkpt lat="37.718010" lon="-121.668640">
        <ele>292.517</ele>
        <time>2018-12-28T00:51:00Z</time>
      </trkpt>
      <trkpt lat="37.717960" lon="-121.668400">
        <ele>293.408</ele>
        <time>2018-12-28T00:51:20Z</time>
      </trkpt>
      <trkpt lat="37.717930" lon="-121.668180">
        <ele>294.021</ele>
        <time>2018-12-28T00:51:40Z</time>
      </trkpt>
      <trkpt lat="37.717900" lon="-121.667930">
        <ele>294.659</ele>
        <time>2018-12-28T00:52:00Z</time>
      </trkpt>
      <trkpt lat="37.717880" lon="-121.667730">
        <ele>295.154</ele>
        <time>2018-12-28T00:52:20Z</time>
      </trkpt>
      <trkpt lat="37.717860" lon="-121.667450">
        <ele>295.623</ele>
        <time>2018-12-28T00:52:40Z</time>
      </trkpt>
      <trkpt lat="37.717840" lon="-121.667180">
        <ele>296.117</ele>
        <time>2018-12-28T00:53:00Z</time>
      </trkpt>
      <trkpt lat="37.717840" lon="-121.666960">
        <ele>296.973</ele>
        <time>2018-12-28T00:53:20Z</time>
      </trkpt>
      <trkpt lat="37.717840" lon="-121.666630">
        <ele>298.160</ele>
        <time>2018-12-28T00:53:40Z</time>
      </trkpt>
      <trkpt lat="37.717840" lon="-121.666320">
        <ele>299.114</ele>
        <time>2018-12-28T00:54:00Z</time>
      </trkpt>
      <trkpt lat="37.717850" lon="-121.666090">
        <ele>299.856</ele>
        <time>2018-12-28T00:54:20Z</time>
      </trkpt>
      <trkpt lat="37.717870" lon="-121.665890">
        <ele>300.259</ele>
        <time>2018-12-28T00:54:40Z</time>
      </trkpt>
      <trkpt lat="37.717890" lon="-121.665650">
        <ele>300.814</ele>
        <time>2018-12-28T00:55:00Z</time>
      </trkpt>
      <trkpt lat="37.717930" lon="-121.665300">
        <ele>301.508</ele>
        <time>2018-12-28T00:55:20Z</time>
      </trkpt>
      <trkpt lat="37.717990" lon="-121.664950">
        <ele>302.058</ele>
        <time>2018-12-28T00:55:40Z</time>
      </trkpt>
      <trkpt lat="37.718020" lon="-121.664750">
        <ele>302.676</ele>
        <time>2018-12-28T00:56:00Z</time>
      </trkpt>
      <trkpt lat="37.718080" lon="-121.664460">
        <ele>304.131</ele>
        <time>2018-12-28T00:56:20Z</time>
      </trkpt>
      <trkpt lat="37.718160" lon="-121.664150">
        <ele>304.830</ele>
        <time>2018-12-28T00:56:40Z</time>
      </trkpt>
      <trkpt lat="37.718240" lon="-121.663860">
        <ele>305.144</ele>
        <time>2018-12-28T00:57:00Z</time>
      </trkpt>
      <trkpt lat="37.718350" lon="-121.663480">
        <ele>306.220</ele>
        <time>2018-12-28T00:57:20Z</time>
      </trkpt>
      <trkpt lat="37.718460" lon="-121.663080">
        <ele>306.837</ele>
        <time>2018-12-28T00:57:40Z</time>
      </trkpt>
      <trkpt lat="37.718700" lon="-121.662250">
        <ele>308.431</ele>
        <time>2018-12-28T00:58:00Z</time>
      </trkpt>
      <trkpt lat="37.718870" lon="-121.661650">
        <ele>308.199</ele>
        <time>2018-12-28T00:58:20Z</time>
      </trkpt>
      <trkpt lat="37.718866" lon="-121.661654">
        <ele>308.107</ele>
        <time>2018-12-28T00:58:40Z</time>
      </trkpt>
      <trkpt lat="37.718970" lon="-121.661280">
        <ele>308.827</ele>
        <time>2018-12-28T00:59:00Z</time>
      </trkpt>
      <trkpt lat="37.719090" lon="-121.660860">
        <ele>308.008</ele>
        <time>2018-12-28T00:59:20Z</time>
      </trkpt>
      <trkpt lat="37.719260" lon="-121.660260">
        <ele>307.692</ele>
        <time>2018-12-28T00:59:40Z</time>
      </trkpt>
      <trkpt lat="37.719410" lon="-121.659720">
        <ele>306.870</ele>
        <time>2018-12-28T01:00:00Z</time>
      </trkpt>
      <trkpt lat="37.719600" lon="-121.659040">
        <ele>305.645</ele>
        <time>2018-12-28T01:00:20Z</time>
      </trkpt>
      <trkpt lat="37.719710" lon="-121.658660">
        <ele>304.724</ele>
        <time>2018-12-28T01:00:40Z</time>
      </trkpt>
      <trkpt lat="37.719820" lon="-121.658240">
        <ele>303.888</ele>
        <time>2018-12-28T01:01:00Z</time>
      </trkpt>
      <trkpt lat="37.719950" lon="-121.657820">
        <ele>301.934</ele>
        <time>2018-12-28T01:01:20Z</time>
      </trkpt>
      <trkpt lat="37.720050" lon="-121.657500">
        <ele>301.011</ele>
        <time>2018-12-28T01:01:40Z</time>
      </trkpt>
      <trkpt lat="37.720270" lon="-121.656780">
        <ele>297.615</ele>
        <time>2018-12-28T01:02:00Z</time>
      </trkpt>
      <trkpt lat="37.720460" lon="-121.656180">
        <ele>294.416</ele>
        <time>2018-12-28T01:02:20Z</time>
      </trkpt>
      <trkpt lat="37.720640" lon="-121.655630">
        <ele>291.876</ele>
        <time>2018-12-28T01:02:40Z</time>
      </trkpt>
      <trkpt lat="37.720960" lon="-121.654670">
        <ele>287.613</ele>
        <time>2018-12-28T01:03:00Z</time>
      </trkpt>
      <trkpt lat="37.721340" lon="-121.653410">
        <ele>280.708</ele>
        <time>2018-12-28T01:03:20Z</time>
      </trkpt>
      <trkpt lat="37.721570" lon="-121.652750">
        <ele>277.414</ele>
        <time>2018-12-28T01:03:40Z</time>
      </trkpt>
      <trkpt lat="37.721910" lon="-121.651670">
        <ele>272.792</ele>
        <time>2018-12-28T01:04:00Z</time>
      </trkpt>
      <trkpt lat="37.722290" lon="-121.650500">
        <ele>268.767</ele>
        <time>2018-12-28T01:04:20Z</time>
      </trkpt>
      <trkpt lat="37.722680" lon="-121.649290">
        <ele>261.046</ele>
        <time>2018-12-28T01:04:40Z</time>
      </trkpt>
      <trkpt lat="37.723030" lon="-121.648230">
        <ele>256.090</ele>
        <time>2018-12-28T01:05:00Z</time>
      </trkpt>
      <trkpt lat="37.723390" lon="-121.647120">
        <ele>252.086</ele>
        <time>2018-12-28T01:05:20Z</time>
      </trkpt>
      <trkpt lat="37.723580" lon="-121.646570">
        <ele>247.093</ele>
        <time>2018-12-28T01:05:40Z</time>
      </trkpt>
      <trkpt lat="37.723750" lon="-121.646040">
        <ele>246.327</ele>
        <time>2018-12-28T01:06:00Z</time>
      </trkpt>
      <trkpt lat="37.723930" lon="-121.645490">
        <ele>243.047</ele>
        <time>2018-12-28T01:06:20Z</time>
      </trkpt>
      <trkpt lat="37.724590" lon="-121.643490">
        <ele>234.029</ele>
        <time>2018-12-28T01:06:40Z</time>
      </trkpt>
      <trkpt lat="37.724860" lon="-121.642690">
        <ele>231.121</ele>
        <time>2018-12-28T01:07:00Z</time>
      </trkpt>
      <trkpt lat="37.725180" lon="-121.641720">
        <ele>229.808</ele>
        <time>2018-12-28T01:07:20Z</time>
      </trkpt>
      <trkpt lat="37.725750" lon="-121.639990">
        <ele>228.157</ele>
        <time>2018-12-28T01:07:40Z</time>
      </trkpt>
      <trkpt lat="37.726510" lon="-121.637640">
        <ele>224.425</ele>
        <time>2018-12-28T01:08:00Z</time>
      </trkpt>
      <trkpt lat="37.726640" lon="-121.637270">
        <ele>224.930</ele>
        <time>2018-12-28T01:08:20Z</time>
      </trkpt>
      <trkpt lat="37.726790" lon="-121.636840">
        <ele>223.789</ele>
        <time>2018-12-28T01:08:40Z</time>
      </trkpt>
      <trkpt lat="37.726880" lon="-121.636590">
        <ele>225.153</ele>
        <time>2018-12-28T01:09:00Z</time>
      </trkpt>
      <trkpt lat="37.726960" lon="-121.636400">
        <ele>223.939</ele>
        <time>2018-12-28T01:09:20Z</time>
      </trkpt>
      <trkpt lat="37.727060" lon="-121.636200">
        <ele>222.546</ele>
        <time>2018-12-28T01:09:40Z</time>
      </trkpt>
      <trkpt lat="37.727170" lon="-121.635990">
        <ele>224.140</ele>
        <time>2018-12-28T01:10:00Z</time>
      </trkpt>
      <trkpt lat="37.727310" lon="-121.635740">
        <ele>222.363</ele>
        <time>2018-12-28T01:10:20Z</time>
      </trkpt>
      <trkpt lat="37.727410" lon="-121.635570">
        <ele>222.344</ele>
        <time>2018-12-28T01:10:40Z</time>
      </trkpt>
      <trkpt lat="37.727520" lon="-121.635380">
        <ele>221.418</ele>
        <time>2018-12-28T01:11:00Z</time>
      </trkpt>
      <trkpt lat="37.727620" lon="-121.635240">
        <ele>220.608</ele>
        <time>2018-12-28T01:11:20Z</time>
      </trkpt>
      <trkpt lat="37.727810" lon="-121.634980">
        <ele>220.369</ele>
        <time>2018-12-28T01:11:40Z</time>
      </trkpt>
      <trkpt lat="37.728010" lon="-121.634740">
        <ele>218.697</ele>
        <time>2018-12-28T01:12:00Z</time>
      </trkpt>
      <trkpt lat="37.728200" lon="-121.634540">
        <ele>216.082</ele>
        <time>2018-12-28T01:12:20Z</time>
      </trkpt>
      <trkpt lat="37.728280" lon="-121.634450">
        <ele>215.991</ele>
        <time>2018-12-28T01:12:40Z</time>
      </trkpt>
      <trkpt lat="37.728390" lon="-121.634330">
        <ele>214.745</ele>
        <time>2018-12-28T01:13:00Z</time>
      </trkpt>
      <trkpt lat="37.728610" lon="-121.634130">
        <ele>214.711</ele>
        <time>2018-12-28T01:13:20Z</time>
      </trkpt>
      <trkpt lat="37.728790" lon="-121.633960">
        <ele>212.748</ele>
        <time>2018-12-28T01:13:40Z</time>
      </trkpt>
      <trkpt lat="37.729060" lon="-121.633740">
        <ele>210.962</ele>
        <time>2018-12-28T01:14:00Z</time>
      </trkpt>
      <trkpt lat="37.729560" lon="-121.633350">
        <ele>207.393</ele>
        <time>2018-12-28T01:14:20Z</time>
      </trkpt>
      <trkpt lat="37.729880" lon="-121.633100">
        <ele>205.365</ele>
        <time>2018-12-28T01:14:40Z</time>
      </trkpt>
      <trkpt lat="37.730350" lon="-121.632710">
        <ele>201.821</ele>
        <time>2018-12-28T01:15:00Z</time>
      </trkpt>
      <trkpt lat="37.730530" lon="-121.632550">
        <ele>200.308</ele>
        <time>2018-12-28T01:15:20Z</time>
      </trkpt>
      <trkpt lat="37.730740" lon="-121.632350">
        <ele>199.282</ele>
        <time>2018-12-28T01:15:40Z</time>
      </trkpt>
      <trkpt lat="37.730960" lon="-121.632120">
        <ele>197.650</ele>
        <time>2018-12-28T01:16:00Z</time>
      </trkpt>
      <trkpt lat="37.731080" lon="-121.631980">
        <ele>196.475</ele>
        <time>2018-12-28T01:16:20Z</time>
      </trkpt>
      <trkpt lat="37.731190" lon="-121.631870">
        <ele>195.824</ele>
        <time>2018-12-28T01:16:40Z</time>
      </trkpt>
      <trkpt lat="37.731340" lon="-121.631680">
        <ele>194.618</ele>
        <time>2018-12-28T01:17:00Z</time>
      </trkpt>
      <trkpt lat="37.731640" lon="-121.631310">
        <ele>193.224</ele>
        <time>2018-12-28T01:17:20Z</time>
      </trkpt>
      <trkpt lat="37.731920" lon="-121.630940">
        <ele>193.451</ele>
        <time>2018-12-28T01:17:40Z</time>
      </trkpt>
      <trkpt lat="37.732100" lon="-121.630670">
        <ele>192.335</ele>
        <time>2018-12-28T01:18:00Z</time>
      </trkpt>
      <trkpt lat="37.732330" lon="-121.630320">
        <ele>191.154</ele>
        <time>2018-12-28T01:18:20Z</time>
      </trkpt>
      <trkpt lat="37.732510" lon="-121.630020">
        <ele>193.956</ele>
        <time>2018-12-28T01:18:40Z</time>
      </trkpt>
      <trkpt lat="37.732660" lon="-121.629760">
        <ele>190.611</ele>
        <time>2018-12-28T01:19:00Z</time>
      </trkpt>
      <trkpt lat="37.732780" lon="-121.629550">
        <ele>191.808</ele>
        <time>2018-12-28T01:19:20Z</time>
      </trkpt>
      <trkpt lat="37.732880" lon="-121.629350">
        <ele>190.088</ele>
        <time>2018-12-28T01:19:40Z</time>
      </trkpt>
      <trkpt lat="37.732960" lon="-121.629180">
        <ele>187.526</ele>
        <time>2018-12-28T01:20:00Z</time>
      </trkpt>
      <trkpt lat="37.733050" lon="-121.628980">
        <ele>183.141</ele>
        <time>2018-12-28T01:20:20Z</time>
      </trkpt>
      <trkpt lat="37.733060" lon="-121.628960">
        <ele>183.020</ele>
        <time>2018-12-28T01:20:40Z</time>
      </trkpt>
      <trkpt lat="37.733100" lon="-121.628840">
        <ele>183.814</ele>
        <time>2018-12-28T01:21:00Z</time>
      </trkpt>
      <trkpt lat="37.733160" lon="-121.628690">
        <ele>186.650</ele>
        <time>2018-12-28T01:21:20Z</time>
      </trkpt>
      <trkpt lat="37.733270" lon="-121.628370">
        <ele>187.637</ele>
        <time>2018-12-28T01:21:40Z</time>
      </trkpt>
      <trkpt lat="37.733310" lon="-121.628230">
        <ele>187.681</ele>
        <time>2018-12-28T01:22:00Z</time>
      </trkpt>
      <trkpt lat="37.733360" lon="-121.628090">
        <ele>187.762</ele>
        <time>2018-12-28T01:22:20Z</time>
      </trkpt>
      <trkpt lat="37.733430" lon="-121.627800">
        <ele>186.583</ele>
        <time>2018-12-28T01:22:40Z</time>
      </trkpt>
      <trkpt lat="37.733500" lon="-121.627530">
        <ele>186.611</ele>
        <time>2018-12-28T01:23:00Z</time>
      </trkpt>
      <trkpt lat="37.733550" lon="-121.627250">
        <ele>185.908</ele>
        <time>2018-12-28T01:23:20Z</time>
      </trkpt>
      <trkpt lat="37.733610" lon="-121.626830">
        <ele>182.929</ele>
        <time>2018-12-28T01:23:40Z</time>
      </trkpt>
      <trkpt lat="37.733650" lon="-121.626470">
        <ele>181.717</ele>
        <time>2018-12-28T01:24:00Z</time>
      </trkpt>
      <trkpt lat="37.733670" lon="-121.626300">
        <ele>181.352</ele>
        <time>2018-12-28T01:24:20Z</time>
      </trkpt>
      <trkpt lat="37.733690" lon="-121.625960">
        <ele>180.021</ele>
        <time>2018-12-28T01:24:40Z</time>
      </trkpt>
      <trkpt lat="37.733750" lon="-121.624930">
        <ele>177.535</ele>
        <time>2018-12-28T01:25:00Z</time>
      </trkpt>
      <trkpt lat="37.733830" lon="-121.623680">
        <ele>173.411</ele>
        <time>2018-12-28T01:25:20Z</time>
      </trkpt>
      <trkpt lat="37.733910" lon="-121.622460">
        <ele>167.728</ele>
        <time>2018-12-28T01:25:40Z</time>
      </trkpt>
      <trkpt lat="37.733940" lon="-121.622110">
        <ele>166.332</ele>
        <time>2018-12-28T01:26:00Z</time>
      </trkpt>
      <trkpt lat="37.733980" lon="-121.621450">
        <ele>162.997</ele>
        <time>2018-12-28T01:26:20Z</time>
      </trkpt>
      <trkpt lat="37.734050" lon="-121.620500">
        <ele>160.623</ele>
        <time>2018-12-28T01:26:40Z</time>
      </trkpt>
      <trkpt lat="37.734120" lon="-121.619530">
        <ele>158.625</ele>
        <time>2018-12-28T01:27:00Z</time>
      </trkpt>
      <trkpt lat="37.734190" lon="-121.618530">
        <ele>151.508</ele>
        <time>2018-12-28T01:27:20Z</time>
      </trkpt>
      <trkpt lat="37.734230" lon="-121.617950">
        <ele>148.642</ele>
        <time>2018-12-28T01:27:40Z</time>
      </trkpt>
      <trkpt lat="37.734240" lon="-121.617710">
        <ele>147.830</ele>
        <time>2018-12-28T01:28:00Z</time>
      </trkpt>
      <trkpt lat="37.734300" lon="-121.616960">
        <ele>145.865</ele>
        <time>2018-12-28T01:28:20Z</time>
      </trkpt>
      <trkpt lat="37.734380" lon="-121.615740">
        <ele>141.314</ele>
        <time>2018-12-28T01:28:40Z</time>
      </trkpt>
      <trkpt lat="37.734470" lon="-121.614570">
        <ele>137.878</ele>
        <time>2018-12-28T01:29:00Z</time>
      </trkpt>
      <trkpt lat="37.734500" lon="-121.613990">
        <ele>137.024</ele>
        <time>2018-12-28T01:29:20Z</time>
      </trkpt>
      <trkpt lat="37.734520" lon="-121.613790">
        <ele>136.531</ele>
        <time>2018-12-28T01:29:40Z</time>
      </trkpt>
      <trkpt lat="37.734550" lon="-121.613390">
        <ele>136.175</ele>
        <time>2018-12-28T01:30:00Z</time>
      </trkpt>
      <trkpt lat="37.734580" lon="-121.613010">
        <ele>136.335</ele>
        <time>2018-12-28T01:30:20Z</time>
      </trkpt>
      <trkpt lat="37.734630" lon="-121.612550">
        <ele>137.786</ele>
        <time>2018-12-28T01:30:40Z</time>
      </trkpt>
      <trkpt lat="37.734690" lon="-121.612040">
        <ele>135.614</ele>
        <time>2018-12-28T01:31:00Z</time>
      </trkpt>
      <trkpt lat="37.734760" lon="-121.611500">
        <ele>132.708</ele>
        <time>2018-12-28T01:31:20Z</time>
      </trkpt>
      <trkpt lat="37.734830" lon="-121.611030">
        <ele>132.226</ele>
        <time>2018-12-28T01:31:40Z</time>
      </trkpt>
      <trkpt lat="37.734900" lon="-121.610570">
        <ele>133.814</ele>
        <time>2018-12-28T01:32:00Z</time>
      </trkpt>
      <trkpt lat="37.734950" lon="-121.610250">
        <ele>133.969</ele>
        <time>2018-12-28T01:32:20Z</time>
      </trkpt>
      <trkpt lat="37.735040" lon="-121.609780">
        <ele>130.128</ele>
        <time>2018-12-28T01:32:40Z</time>
      </trkpt>
      <trkpt lat="37.735120" lon="-121.609340">
        <ele>129.432</ele>
        <time>2018-12-28T01:33:00Z</time>
      </trkpt>
      <trkpt lat="37.735230" lon="-121.608860">
        <ele>131.948</ele>
        <time>2018-12-28T01:33:20Z</time>
      </trkpt>
      <trkpt lat="37.735380" lon="-121.608180">
        <ele>126.885</ele>
        <time>2018-12-28T01:33:40Z</time>
      </trkpt>
      <trkpt lat="37.735510" lon="-121.607660">
        <ele>128.819</ele>
        <time>2018-12-28T01:34:00Z</time>
      </trkpt>
      <trkpt lat="37.735630" lon="-121.607220">
        <ele>125.124</ele>
        <time>2018-12-28T01:34:20Z</time>
      </trkpt>
      <trkpt lat="37.735690" lon="-121.606990">
        <ele>125.204</ele>
        <time>2018-12-28T01:34:40Z</time>
      </trkpt>
      <trkpt lat="37.735810" lon="-121.606560">
        <ele>124.014</ele>
        <time>2018-12-28T01:35:00Z</time>
      </trkpt>
      <trkpt lat="37.736080" lon="-121.605610">
        <ele>122.208</ele>
        <time>2018-12-28T01:35:20Z</time>
      </trkpt>
      <trkpt lat="37.736430" lon="-121.604350">
        <ele>126.995</ele>
        <time>2018-12-28T01:35:40Z</time>
      </trkpt>
      <trkpt lat="37.736620" lon="-121.603660">
        <ele>129.573</ele>
        <time>2018-12-28T01:36:00Z</time>
      </trkpt>
      <trkpt lat="37.736650" lon="-121.603560">
        <ele>130.138</ele>
        <time>2018-12-28T01:36:20Z</time>
      </trkpt>
      <trkpt lat="37.736740" lon="-121.603230">
        <ele>132.047</ele>
        <time>2018-12-28T01:36:40Z</time>
      </trkpt>
      <trkpt lat="37.736960" lon="-121.602420">
        <ele>132.511</ele>
        <time>2018-12-28T01:37:00Z</time>
      </trkpt>
      <trkpt lat="37.737230" lon="-121.601460">
        <ele>135.477</ele>
        <time>2018-12-28T01:37:20Z</time>
      </trkpt>
      <trkpt lat="37.737460" lon="-121.600570">
        <ele>137.874</ele>
        <time>2018-12-28T01:37:40Z</time>
      </trkpt>
      <trkpt lat="37.737570" lon="-121.600070">
        <ele>137.428</ele>
        <time>2018-12-28T01:38:00Z</time>
      </trkpt>
      <trkpt lat="37.737590" lon="-121.599980">
        <ele>137.238</ele>
        <time>2018-12-28T01:38:20Z</time>
      </trkpt>
      <trkpt lat="37.737670" lon="-121.599640">
        <ele>136.770</ele>
        <time>2018-12-28T01:38:40Z</time>
      </trkpt>
      <trkpt lat="37.737770" lon="-121.599130">
        <ele>136.617</ele>
        <time>2018-12-28T01:39:00Z</time>
      </trkpt>
      <trkpt lat="37.737910" lon="-121.598470">
        <ele>133.108</ele>
        <time>2018-12-28T01:39:20Z</time>
      </trkpt>
      <trkpt lat="37.738050" lon="-121.597680">
        <ele>131.596</ele>
        <time>2018-12-28T01:39:40Z</time>
      </trkpt>
      <trkpt lat="37.738210" lon="-121.596840">
        <ele>125.124</ele>
        <time>2018-12-28T01:40:00Z</time>
      </trkpt>
      <trkpt lat="37.738400" lon="-121.595820">
        <ele>119.039</ele>
        <time>2018-12-28T01:40:20Z</time>
      </trkpt>
      <trkpt lat="37.738430" lon="-121.595620">
        <ele>118.348</ele>
        <time>2018-12-28T01:40:40Z</time>
      </trkpt>
      <trkpt lat="37.738550" lon="-121.594990">
        <ele>114.792</ele>
        <time>2018-12-28T01:41:00Z</time>
      </trkpt>
      <trkpt lat="37.738740" lon="-121.593940">
        <ele>111.368</ele>
        <time>2018-12-28T01:41:20Z</time>
      </trkpt>
      <trkpt lat="37.739030" lon="-121.592440">
        <ele>108.215</ele>
        <time>2018-12-28T01:41:40Z</time>
      </trkpt>
      <trkpt lat="37.739150" lon="-121.591790">
        <ele>107.249</ele>
        <time>2018-12-28T01:42:00Z</time>
      </trkpt>
      <trkpt lat="37.739330" lon="-121.590830">
        <ele>107.022</ele>
        <time>2018-12-28T01:42:20Z</time>
      </trkpt>
      <trkpt lat="37.739600" lon="-121.589460">
        <ele>105.962</ele>
        <time>2018-12-28T01:42:40Z</time>
      </trkpt>
      <trkpt lat="37.739760" lon="-121.588600">
        <ele>104.708</ele>
        <time>2018-12-28T01:43:00Z</time>
      </trkpt>
      <trkpt lat="37.739880" lon="-121.587920">
        <ele>104.408</ele>
        <time>2018-12-28T01:43:20Z</time>
      </trkpt>
      <trkpt lat="37.740010" lon="-121.587230">
        <ele>102.845</ele>
        <time>2018-12-28T01:43:40Z</time>
      </trkpt>
      <trkpt lat="37.740140" lon="-121.586580">
        <ele>102.923</ele>
        <time>2018-12-28T01:44:00Z</time>
      </trkpt>
      <trkpt lat="37.740240" lon="-121.586030">
        <ele>101.288</ele>
        <time>2018-12-28T01:44:20Z</time>
      </trkpt>
      <trkpt lat="37.740300" lon="-121.585720">
        <ele>97.067</ele>
        <time>2018-12-28T01:44:40Z</time>
      </trkpt>
      <trkpt lat="37.740400" lon="-121.585230">
        <ele>102.741</ele>
        <time>2018-12-28T01:45:00Z</time>
      </trkpt>
      <trkpt lat="37.740540" lon="-121.584430">
        <ele>104.047</ele>
        <time>2018-12-28T01:45:20Z</time>
      </trkpt>
      <trkpt lat="37.740680" lon="-121.583630">
        <ele>105.914</ele>
        <time>2018-12-28T01:45:40Z</time>
      </trkpt>
      <trkpt lat="37.740900" lon="-121.582100">
        <ele>110.728</ele>
        <time>2018-12-28T01:46:00Z</time>
      </trkpt>
      <trkpt lat="37.740940" lon="-121.581830">
        <ele>111.231</ele>
        <time>2018-12-28T01:46:20Z</time>
      </trkpt>
      <trkpt lat="37.740980" lon="-121.581530">
        <ele>111.361</ele>
        <time>2018-12-28T01:46:40Z</time>
      </trkpt>
      <trkpt lat="37.741030" lon="-121.581130">
        <ele>112.007</ele>
        <time>2018-12-28T01:47:00Z</time>
      </trkpt>
      <trkpt lat="37.741170" lon="-121.580180">
        <ele>113.608</ele>
        <time>2018-12-28T01:47:20Z</time>
      </trkpt>
      <trkpt lat="37.741320" lon="-121.579050">
        <ele>111.416</ele>
        <time>2018-12-28T01:47:40Z</time>
      </trkpt>
      <trkpt lat="37.741410" lon="-121.578220">
        <ele>109.944</ele>
        <time>2018-12-28T01:48:00Z</time>
      </trkpt>
      <trkpt lat="37.741520" lon="-121.576960">
        <ele>106.769</ele>
        <time>2018-12-28T01:48:20Z</time>
      </trkpt>
      <trkpt lat="37.741530" lon="-121.576880">
        <ele>106.248</ele>
        <time>2018-12-28T01:48:40Z</time>
      </trkpt>
      <trkpt lat="37.741730" lon="-121.574020">
        <ele>97.482</ele>
        <time>2018-12-28T01:49:00Z</time>
      </trkpt>
      <trkpt lat="37.741732" lon="-121.574021">
        <ele>97.528</ele>
        <time>2018-12-28T01:49:20Z</time>
      </trkpt>
      <trkpt lat="37.741850" lon="-121.572630">
        <ele>96.085</ele>
        <time>2018-12-28T01:49:40Z</time>
      </trkpt>
      <trkpt lat="37.741900" lon="-121.571920">
        <ele>95.729</ele>
        <time>2018-12-28T01:50:00Z</time>
      </trkpt>
      <trkpt lat="37.741910" lon="-121.571800">
        <ele>95.987</ele>
        <time>2018-12-28T01:50:20Z</time>
      </trkpt>
      <trkpt lat="37.741950" lon="-121.571250">
        <ele>95.342</ele>
        <time>2018-12-28T01:50:40Z</time>
      </trkpt>
      <trkpt lat="37.742130" lon="-121.568850">
        <ele>95.026</ele>
        <time>2018-12-28T01:51:00Z</time>
      </trkpt>
      <trkpt lat="37.742260" lon="-121.567240">
        <ele>94.808</ele>
        <time>2018-12-28T01:51:20Z</time>
      </trkpt>
      <trkpt lat="37.742370" lon="-121.565750">
        <ele>92.221</ele>
        <time>2018-12-28T01:51:40Z</time>
      </trkpt>
      <trkpt lat="37.742480" lon="-121.564350">
        <ele>89.479</ele>
        <time>2018-12-28T01:52:00Z</time>
      </trkpt>
      <trkpt lat="37.742490" lon="-121.564240">
        <ele>89.214</ele>
        <time>2018-12-28T01:52:20Z</time>
      </trkpt>
      <trkpt lat="37.742560" lon="-121.563150">
        <ele>84.363</ele>
        <time>2018-12-28T01:52:40Z</time>
      </trkpt>
      <trkpt lat="37.742630" lon="-121.562290">
        <ele>82.867</ele>
        <time>2018-12-28T01:53:00Z</time>
      </trkpt>
      <trkpt lat="37.742730" lon="-121.561010">
        <ele>79.713</ele>
        <time>2018-12-28T01:53:20Z</time>
      </trkpt>
      <trkpt lat="37.742840" lon="-121.559610">
        <ele>76.890</ele>
        <time>2018-12-28T01:53:40Z</time>
      </trkpt>
      <trkpt lat="37.742890" lon="-121.558950">
        <ele>76.184</ele>
        <time>2018-12-28T01:54:00Z</time>
      </trkpt>
      <trkpt lat="37.743020" lon="-121.557220">
        <ele>70.032</ele>
        <time>2018-12-28T01:54:20Z</time>
      </trkpt>
      <trkpt lat="37.743180" lon="-121.555050">
        <ele>65.292</ele>
        <time>2018-12-28T01:54:40Z</time>
      </trkpt>
      <trkpt lat="37.743300" lon="-121.553420">
        <ele>63.211</ele>
        <time>2018-12-28T01:55:00Z</time>
      </trkpt>
      <trkpt lat="37.743450" lon="-121.551440">
        <ele>57.408</ele>
        <time>2018-12-28T01:55:20Z</time>
      </trkpt>
      <trkpt lat="37.743460" lon="-121.551270">
        <ele>57.316</ele>
        <time>2018-12-28T01:55:40Z</time>
      </trkpt>
      <trkpt lat="37.743480" lon="-121.550810">
        <ele>57.324</ele>
        <time>2018-12-28T01:56:00Z</time>
      </trkpt>
      <trkpt lat="37.743490" lon="-121.550640">
        <ele>57.359</ele>
        <time>2018-12-28T01:56:20Z</time>
      </trkpt>
      <trkpt lat="37.743490" lon="-121.550430">
        <ele>57.598</ele>
        <time>2018-12-28T01:56:40Z</time>
      </trkpt>
      <trkpt lat="37.743500" lon="-121.549980">
        <ele>56.842</ele>
        <time>2018-12-28T01:57:00Z</time>
      </trkpt>
      <trkpt lat="37.743490" lon="-121.549480">
        <ele>55.058</ele>
        <time>2018-12-28T01:57:20Z</time>
      </trkpt>
      <trkpt lat="37.743470" lon="-121.549000">
        <ele>53.825</ele>
        <time>2018-12-28T01:57:40Z</time>
      </trkpt>
      <trkpt lat="37.743330" lon="-121.546680">
        <ele>50.529</ele>
        <time>2018-12-28T01:58:00Z</time>
      </trkpt>
      <trkpt lat="37.743210" lon="-121.544880">
        <ele>48.786</ele>
        <time>2018-12-28T01:58:20Z</time>
      </trkpt>
      <trkpt lat="37.743020" lon="-121.541730">
        <ele>50.960</ele>
        <time>2018-12-28T01:58:40Z</time>
      </trkpt>
      <trkpt lat="37.743010" lon="-121.541570">
        <ele>51.026</ele>
        <time>2018-12-28T01:59:00Z</time>
      </trkpt>
      <trkpt lat="37.742980" lon="-121.541020">
        <ele>51.408</ele>
        <time>2018-12-28T01:59:20Z</time>
      </trkpt>
      <trkpt lat="37.742760" lon="-121.537450">
        <ele>50.741</ele>
        <time>2018-12-28T01:59:40Z</time>
      </trkpt>
      <trkpt lat="37.742720" lon="-121.536690">
        <ele>50.479</ele>
        <time>2018-12-28T02:00:00Z</time>
      </trkpt>
      <trkpt lat="37.742370" lon="-121.531300">
        <ele>47.154</ele>
        <time>2018-12-28T02:00:20Z</time>
      </trkpt>
      <trkpt lat="37.742330" lon="-121.530600">
        <ele>46.563</ele>
        <time>2018-12-28T02:00:40Z</time>
      </trkpt>
      <trkpt lat="37.742280" lon="-121.529880">
        <ele>45.987</ele>
        <time>2018-12-28T02:01:00Z</time>
      </trkpt>
      <trkpt lat="37.742070" lon="-121.526470">
        <ele>42.773</ele>
        <time>2018-12-28T02:01:20Z</time>
      </trkpt>
      <trkpt lat="37.742000" lon="-121.525410">
        <ele>41.330</ele>
        <time>2018-12-28T02:01:40Z</time>
      </trkpt>
      <trkpt lat="37.741870" lon="-121.523250">
        <ele>39.314</ele>
        <time>2018-12-28T02:02:00Z</time>
      </trkpt>
      <trkpt lat="37.741770" lon="-121.521610">
        <ele>38.345</ele>
        <time>2018-12-28T02:02:20Z</time>
      </trkpt>
      <trkpt lat="37.741670" lon="-121.519850">
        <ele>37.247</ele>
        <time>2018-12-28T02:02:40Z</time>
      </trkpt>
      <trkpt lat="37.741380" lon="-121.515300">
        <ele>34.411</ele>
        <time>2018-12-28T02:03:00Z</time>
      </trkpt>
      <trkpt lat="37.741040" lon="-121.510040">
        <ele>33.408</ele>
        <time>2018-12-28T02:03:20Z</time>
      </trkpt>
      <trkpt lat="37.741000" lon="-121.509230">
        <ele>32.877</ele>
        <time>2018-12-28T02:03:40Z</time>
      </trkpt>
      <trkpt lat="37.740880" lon="-121.507540">
        <ele>31.795</ele>
        <time>2018-12-28T02:04:00Z</time>
      </trkpt>
      <trkpt lat="37.740840" lon="-121.506940">
        <ele>31.240</ele>
        <time>2018-12-28T02:04:20Z</time>
      </trkpt>
      <trkpt lat="37.740780" lon="-121.506130">
        <ele>30.649</ele>
        <time>2018-12-28T02:04:40Z</time>
      </trkpt>
      <trkpt lat="37.740750" lon="-121.505480">
        <ele>30.173</ele>
        <time>2018-12-28T02:05:00Z</time>
      </trkpt>
      <trkpt lat="37.740690" lon="-121.504640">
        <ele>29.779</ele>
        <time>2018-12-28T02:05:20Z</time>
      </trkpt>
      <trkpt lat="37.740640" lon="-121.503830">
        <ele>29.216</ele>
        <time>2018-12-28T02:05:40Z</time>
      </trkpt>
      <trkpt lat="37.740580" lon="-121.502830">
        <ele>28.790</ele>
        <time>2018-12-28T02:06:00Z</time>
      </trkpt>
      <trkpt lat="37.740510" lon="-121.501850">
        <ele>28.064</ele>
        <time>2018-12-28T02:06:20Z</time>
      </trkpt>
      <trkpt lat="37.740470" lon="-121.501170">
        <ele>27.406</ele>
        <time>2018-12-28T02:06:40Z</time>
      </trkpt>
      <trkpt lat="37.740460" lon="-121.500850">
        <ele>27.116</ele>
        <time>2018-12-28T02:07:00Z</time>
      </trkpt>
      <trkpt lat="37.740450" lon="-121.500540">
        <ele>26.908</ele>
        <time>2018-12-28T02:07:20Z</time>
      </trkpt>
      <trkpt lat="37.740450" lon="-121.500200">
        <ele>26.529</ele>
        <time>2018-12-28T02:07:40Z</time>
      </trkpt>
      <trkpt lat="37.740450" lon="-121.499860">
        <ele>26.137</ele>
        <time>2018-12-28T02:08:00Z</time>
      </trkpt>
      <trkpt lat="37.740450" lon="-121.499650">
        <ele>25.992</ele>
        <time>2018-12-28T02:08:20Z</time>
      </trkpt>
      <trkpt lat="37.740460" lon="-121.499380">
        <ele>25.621</ele>
        <time>2018-12-28T02:08:40Z</time>
      </trkpt>
      <trkpt lat="37.740470" lon="-121.499060">
        <ele>25.395</ele>
        <time>2018-12-28T02:09:00Z</time>
      </trkpt>
      <trkpt lat="37.740490" lon="-121.498820">
        <ele>25.131</ele>
        <time>2018-12-28T02:09:20Z</time>
      </trkpt>
      <trkpt lat="37.740520" lon="-121.498360">
        <ele>24.878</ele>
        <time>2018-12-28T02:09:40Z</time>
      </trkpt>
      <trkpt lat="37.740570" lon="-121.497870">
        <ele>24.382</ele>
        <time>2018-12-28T02:10:00Z</time>
      </trkpt>
      <trkpt lat="37.740600" lon="-121.497590">
        <ele>24.139</ele>
        <time>2018-12-28T02:10:20Z</time>
      </trkpt>
      <trkpt lat="37.740640" lon="-121.497280">
        <ele>23.901</ele>
        <time>2018-12-28T02:10:40Z</time>
      </trkpt>
      <trkpt lat="37.740720" lon="-121.496800">
        <ele>23.621</ele>
        <time>2018-12-28T02:11:00Z</time>
      </trkpt>
      <trkpt lat="37.740810" lon="-121.496300">
        <ele>23.608</ele>
        <time>2018-12-28T02:11:20Z</time>
      </trkpt>
      <trkpt lat="37.740920" lon="-121.495820">
        <ele>23.326</ele>
        <time>2018-12-28T02:11:40Z</time>
      </trkpt>
      <trkpt lat="37.741030" lon="-121.495320">
        <ele>22.854</ele>
        <time>2018-12-28T02:12:00Z</time>
      </trkpt>
      <trkpt lat="37.741140" lon="-121.494890">
        <ele>22.599</ele>
        <time>2018-12-28T02:12:20Z</time>
      </trkpt>
      <trkpt lat="37.741240" lon="-121.494530">
        <ele>22.318</ele>
        <time>2018-12-28T02:12:40Z</time>
      </trkpt>
      <trkpt lat="37.741420" lon="-121.493920">
        <ele>21.892</ele>
        <time>2018-12-28T02:13:00Z</time>
      </trkpt>
      <trkpt lat="37.741530" lon="-121.493590">
        <ele>21.388</ele>
        <time>2018-12-28T02:13:20Z</time>
      </trkpt>
      <trkpt lat="37.741680" lon="-121.493150">
        <ele>20.725</ele>
        <time>2018-12-28T02:13:40Z</time>
      </trkpt>
      <trkpt lat="37.742010" lon="-121.492300">
        <ele>20.559</ele>
        <time>2018-12-28T02:14:00Z</time>
      </trkpt>
      <trkpt lat="37.742540" lon="-121.491040">
        <ele>20.147</ele>
        <time>2018-12-28T02:14:20Z</time>
      </trkpt>
      <trkpt lat="37.743750" lon="-121.488080">
        <ele>18.729</ele>
        <time>2018-12-28T02:14:40Z</time>
      </trkpt>
      <trkpt lat="37.744000" lon="-121.487460">
        <ele>18.321</ele>
        <time>2018-12-28T02:15:00Z</time>
      </trkpt>
      <trkpt lat="37.745130" lon="-121.484700">
        <ele>16.308</ele>
        <time>2018-12-28T02:15:20Z</time>
      </trkpt>
      <trkpt lat="37.748520" lon="-121.476430">
        <ele>10.727</ele>
        <time>2018-12-28T02:15:40Z</time>
      </trkpt>
      <trkpt lat="37.748780" lon="-121.475790">
        <ele>10.535</ele>
        <time>2018-12-28T02:16:00Z</time>
      </trkpt>
      <trkpt lat="37.749040" lon="-121.475150">
        <ele>10.410</ele>
        <time>2018-12-28T02:16:20Z</time>
      </trkpt>
      <trkpt lat="37.752130" lon="-121.467620">
        <ele>8.819</ele>
        <time>2018-12-28T02:16:40Z</time>
      </trkpt>
      <trkpt lat="37.753230" lon="-121.464920">
        <ele>11.623</ele>
        <time>2018-12-28T02:17:00Z</time>
      </trkpt>
      <trkpt lat="37.753890" lon="-121.463310">
        <ele>11.779</ele>
        <time>2018-12-28T02:17:20Z</time>
      </trkpt>
      <trkpt lat="37.754540" lon="-121.461710">
        <ele>12.496</ele>
        <time>2018-12-28T02:17:40Z</time>
      </trkpt>
      <trkpt lat="37.755920" lon="-121.458360">
        <ele>8.380</ele>
        <time>2018-12-28T02:18:00Z</time>
      </trkpt>
      <trkpt lat="37.756070" lon="-121.458020">
        <ele>8.378</ele>
        <time>2018-12-28T02:18:20Z</time>
      </trkpt>
      <trkpt lat="37.757730" lon="-121.453960">
        <ele>10.633</ele>
        <time>2018-12-28T02:18:40Z</time>
      </trkpt>
      <trkpt lat="37.757850" lon="-121.453670">
        <ele>11.726</ele>
        <time>2018-12-28T02:19:00Z</time>
      </trkpt>
      <trkpt lat="37.757970" lon="-121.453360">
        <ele>12.208</ele>
        <time>2018-12-28T02:19:20Z</time>
      </trkpt>
      <trkpt lat="37.758090" lon="-121.453040">
        <ele>11.340</ele>
        <time>2018-12-28T02:19:40Z</time>
      </trkpt>
      <trkpt lat="37.758510" lon="-121.452010">
        <ele>10.568</ele>
        <time>2018-12-28T02:20:00Z</time>
      </trkpt>
      <trkpt lat="37.759220" lon="-121.450280">
        <ele>8.373</ele>
        <time>2018-12-28T02:20:20Z</time>
      </trkpt>
      <trkpt lat="37.761050" lon="-121.445830">
        <ele>6.892</ele>
        <time>2018-12-28T02:20:40Z</time>
      </trkpt>
      <trkpt lat="37.761130" lon="-121.445600">
        <ele>6.886</ele>
        <time>2018-12-28T02:21:00Z</time>
      </trkpt>
      <trkpt lat="37.761230" lon="-121.445380">
        <ele>6.892</ele>
        <time>2018-12-28T02:21:20Z</time>
      </trkpt>
      <trkpt lat="37.761310" lon="-121.445190">
        <ele>6.849</ele>
        <time>2018-12-28T02:21:40Z</time>
      </trkpt>
      <trkpt lat="37.761370" lon="-121.445020">
        <ele>6.873</ele>
        <time>2018-12-28T02:22:00Z</time>
      </trkpt>
      <trkpt lat="37.761430" lon="-121.444890">
        <ele>6.891</ele>
        <time>2018-12-28T02:22:20Z</time>
      </trkpt>
      <trkpt lat="37.761510" lon="-121.444700">
        <ele>6.881</ele>
        <time>2018-12-28T02:22:40Z</time>
      </trkpt>
      <trkpt lat="37.761560" lon="-121.444560">
        <ele>6.919</ele>
        <time>2018-12-28T02:23:00Z</time>
      </trkpt>
      <trkpt lat="37.761910" lon="-121.443510">
        <ele>7.008</ele>
        <time>2018-12-28T02:23:20Z</time>
      </trkpt>
      <trkpt lat="37.761970" lon="-121.443310">
        <ele>6.742</ele>
        <time>2018-12-28T02:23:40Z</time>
      </trkpt>
      <trkpt lat="37.762050" lon="-121.443050">
        <ele>6.820</ele>
        <time>2018-12-28T02:24:00Z</time>
      </trkpt>
      <trkpt lat="37.762200" lon="-121.442460">
        <ele>6.955</ele>
        <time>2018-12-28T02:24:20Z</time>
      </trkpt>
      <trkpt lat="37.762310" lon="-121.441980">
        <ele>6.794</ele>
        <time>2018-12-28T02:24:40Z</time>
      </trkpt>
      <trkpt lat="37.762420" lon="-121.441460">
        <ele>6.858</ele>
        <time>2018-12-28T02:25:00Z</time>
      </trkpt>
      <trkpt lat="37.762510" lon="-121.440970">
        <ele>6.774</ele>
        <time>2018-12-28T02:25:20Z</time>
      </trkpt>
      <trkpt lat="37.762630" lon="-121.440100">
        <ele>6.861</ele>
        <time>2018-12-28T02:25:40Z</time>
      </trkpt>
      <trkpt lat="37.762680" lon="-121.439810">
        <ele>6.975</ele>
        <time>2018-12-28T02:26:00Z</time>
      </trkpt>
      <trkpt lat="37.762770" lon="-121.438660">
        <ele>7.551</ele>
        <time>2018-12-28T02:26:20Z</time>
      </trkpt>
      <trkpt lat="37.762790" lon="-121.438350">
        <ele>7.901</ele>
        <time>2018-12-28T02:26:40Z</time>
      </trkpt>
      <trkpt lat="37.762790" lon="-121.438040">
        <ele>8.111</ele>
        <time>2018-12-28T02:27:00Z</time>
      </trkpt>
      <trkpt lat="37.762800" lon="-121.437880">
        <ele>8.208</ele>
        <time>2018-12-28T02:27:20Z</time>
      </trkpt>
      <trkpt lat="37.762800" lon="-121.437670">
        <ele>8.618</ele>
        <time>2018-12-28T02:27:40Z</time>
      </trkpt>
      <trkpt lat="37.762800" lon="-121.437300">
        <ele>9.326</ele>
        <time>2018-12-28T02:28:00Z</time>
      </trkpt>
      <trkpt lat="37.762800" lon="-121.436880">
        <ele>9.831</ele>
        <time>2018-12-28T02:28:20Z</time>
      </trkpt>
      <trkpt lat="37.762800" lon="-121.436270">
        <ele>9.950</ele>
        <time>2018-12-28T02:28:40Z</time>
      </trkpt>
      <trkpt lat="37.762800" lon="-121.435500">
        <ele>10.044</ele>
        <time>2018-12-28T02:29:00Z</time>
      </trkpt>
      <trkpt lat="37.762800" lon="-121.434980">
        <ele>7.420</ele>
        <time>2018-12-28T02:29:20Z</time>
      </trkpt>
      <trkpt lat="37.762800" lon="-121.434450">
        <ele>9.747</ele>
        <time>2018-12-28T02:29:40Z</time>
      </trkpt>
      <trkpt lat="37.762810" lon="-121.429850">
        <ele>6.881</ele>
        <time>2018-12-28T02:30:00Z</time>
      </trkpt>
      <trkpt lat="37.762810" lon="-121.429550">
        <ele>6.817</ele>
        <time>2018-12-28T02:30:20Z</time>
      </trkpt>
      <trkpt lat="37.762810" lon="-121.427490">
        <ele>6.987</ele>
        <time>2018-12-28T02:30:40Z</time>
      </trkpt>
      <trkpt lat="37.762820" lon="-121.425960">
        <ele>12.015</ele>
        <time>2018-12-28T02:31:00Z</time>
      </trkpt>
      <trkpt lat="37.762820" lon="-121.425260">
        <ele>8.208</ele>
        <time>2018-12-28T02:31:20Z</time>
      </trkpt>
      <trkpt lat="37.762820" lon="-121.424600">
        <ele>7.644</ele>
        <time>2018-12-28T02:31:40Z</time>
      </trkpt>
      <trkpt lat="37.762840" lon="-121.424090">
        <ele>8.542</ele>
        <time>2018-12-28T02:32:00Z</time>
      </trkpt>
      <trkpt lat="37.762870" lon="-121.423570">
        <ele>9.367</ele>
        <time>2018-12-28T02:32:20Z</time>
      </trkpt>
      <trkpt lat="37.762910" lon="-121.423100">
        <ele>10.356</ele>
        <time>2018-12-28T02:32:40Z</time>
      </trkpt>
      <trkpt lat="37.762940" lon="-121.422740">
        <ele>10.720</ele>
        <time>2018-12-28T02:33:00Z</time>
      </trkpt>
      <trkpt lat="37.763000" lon="-121.422270">
        <ele>11.226</ele>
        <time>2018-12-28T02:33:20Z</time>
      </trkpt>
      <trkpt lat="37.763130" lon="-121.421380">
        <ele>12.273</ele>
        <time>2018-12-28T02:33:40Z</time>
      </trkpt>
      <trkpt lat="37.763310" lon="-121.420110">
        <ele>10.847</ele>
        <time>2018-12-28T02:34:00Z</time>
      </trkpt>
      <trkpt lat="37.763390" lon="-121.419590">
        <ele>13.462</ele>
        <time>2018-12-28T02:34:20Z</time>
      </trkpt>
      <trkpt lat="37.763470" lon="-121.419070">
        <ele>14.383</ele>
        <time>2018-12-28T02:34:40Z</time>
      </trkpt>
      <trkpt lat="37.763560" lon="-121.418460">
        <ele>14.311</ele>
        <time>2018-12-28T02:35:00Z</time>
      </trkpt>
      <trkpt lat="37.763670" lon="-121.417760">
        <ele>14.308</ele>
        <time>2018-12-28T02:35:20Z</time>
      </trkpt>
      <trkpt lat="37.763840" lon="-121.416610">
        <ele>14.049</ele>
        <time>2018-12-28T02:35:40Z</time>
      </trkpt>
      <trkpt lat="37.763960" lon="-121.415830">
        <ele>12.987</ele>
        <time>2018-12-28T02:36:00Z</time>
      </trkpt>
      <trkpt lat="37.764200" lon="-121.414190">
        <ele>12.962</ele>
        <time>2018-12-28T02:36:20Z</time>
      </trkpt>
      <trkpt lat="37.764440" lon="-121.412560">
        <ele>10.171</ele>
        <time>2018-12-28T02:36:40Z</time>
      </trkpt>
      <trkpt lat="37.764530" lon="-121.411920">
        <ele>9.635</ele>
        <time>2018-12-28T02:37:00Z</time>
      </trkpt>
      <trkpt lat="37.764570" lon="-121.411640">
        <ele>9.391</ele>
        <time>2018-12-28T02:37:20Z</time>
      </trkpt>
      <trkpt lat="37.764610" lon="-121.411230">
        <ele>8.548</ele>
        <time>2018-12-28T02:37:40Z</time>
      </trkpt>
      <trkpt lat="37.764630" lon="-121.411050">
        <ele>8.542</ele>
        <time>2018-12-28T02:38:00Z</time>
      </trkpt>
      <trkpt lat="37.764640" lon="-121.410880">
        <ele>8.495</ele>
        <time>2018-12-28T02:38:20Z</time>
      </trkpt>
      <trkpt lat="37.764670" lon="-121.410560">
        <ele>8.449</ele>
        <time>2018-12-28T02:38:40Z</time>
      </trkpt>
      <trkpt lat="37.764680" lon="-121.410330">
        <ele>8.423</ele>
        <time>2018-12-28T02:39:00Z</time>
      </trkpt>
      <trkpt lat="37.764700" lon="-121.409990">
        <ele>8.308</ele>
        <time>2018-12-28T02:39:20Z</time>
      </trkpt>
      <trkpt lat="37.764710" lon="-121.408820">
        <ele>8.352</ele>
        <time>2018-12-28T02:39:40Z</time>
      </trkpt>
      <trkpt lat="37.764740" lon="-121.398530">
        <ele>8.370</ele>
        <time>2018-12-28T02:40:00Z</time>
      </trkpt>
      <trkpt lat="37.764770" lon="-121.384170">
        <ele>8.265</ele>
        <time>2018-12-28T02:40:20Z</time>
      </trkpt>
      <trkpt lat="37.764790" lon="-121.372560">
        <ele>2.434</ele>
        <time>2018-12-28T02:40:40Z</time>
      </trkpt>
      <trkpt lat="37.764790" lon="-121.371210">
        <ele>2.318</ele>
        <time>2018-12-28T02:41:00Z</time>
      </trkpt>
      <trkpt lat="37.764800" lon="-121.369860">
        <ele>2.284</ele>
        <time>2018-12-28T02:41:20Z</time>
      </trkpt>
      <trkpt lat="37.764820" lon="-121.358660">
        <ele>4.071</ele>
        <time>2018-12-28T02:41:40Z</time>
      </trkpt>
      <trkpt lat="37.764830" lon="-121.355460">
        <ele>4.865</ele>
        <time>2018-12-28T02:42:00Z</time>
      </trkpt>
      <trkpt lat="37.764830" lon="-121.355070">
        <ele>4.863</ele>
        <time>2018-12-28T02:42:20Z</time>
      </trkpt>
      <trkpt lat="37.764840" lon="-121.354830">
        <ele>4.844</ele>
        <time>2018-12-28T02:42:40Z</time>
      </trkpt>
      <trkpt lat="37.764860" lon="-121.354350">
        <ele>4.818</ele>
        <time>2018-12-28T02:43:00Z</time>
      </trkpt>
      <trkpt lat="37.764880" lon="-121.354120">
        <ele>4.808</ele>
        <time>2018-12-28T02:43:20Z</time>
      </trkpt>
      <trkpt lat="37.764900" lon="-121.353800">
        <ele>4.819</ele>
        <time>2018-12-28T02:43:40Z</time>
      </trkpt>
      <trkpt lat="37.764950" lon="-121.353320">
        <ele>4.887</ele>
        <time>2018-12-28T02:44:00Z</time>
      </trkpt>
      <trkpt lat="37.765020" lon="-121.352630">
        <ele>4.982</ele>
        <time>2018-12-28T02:44:20Z</time>
      </trkpt>
      <trkpt lat="37.765090" lon="-121.351750">
        <ele>5.021</ele>
        <time>2018-12-28T02:44:40Z</time>
      </trkpt>
      <trkpt lat="37.765120" lon="-121.351400">
        <ele>5.015</ele>
        <time>2018-12-28T02:45:00Z</time>
      </trkpt>
      <trkpt lat="37.765190" lon="-121.350720">
        <ele>5.111</ele>
        <time>2018-12-28T02:45:20Z</time>
      </trkpt>
      <trkpt lat="37.765260" lon="-121.350120">
        <ele>5.248</ele>
        <time>2018-12-28T02:45:40Z</time>
      </trkpt>
      <trkpt lat="37.765320" lon="-121.349440">
        <ele>5.382</ele>
        <time>2018-12-28T02:46:00Z</time>
      </trkpt>
      <trkpt lat="37.765350" lon="-121.349120">
        <ele>3.935</ele>
        <time>2018-12-28T02:46:20Z</time>
      </trkpt>
      <trkpt lat="37.765390" lon="-121.348720">
        <ele>2.286</ele>
        <time>2018-12-28T02:46:40Z</time>
      </trkpt>
      <trkpt lat="37.765430" lon="-121.348350">
        <ele>2.114</ele>
        <time>2018-12-28T02:47:00Z</time>
      </trkpt>
      <trkpt lat="37.765490" lon="-121.347750">
        <ele>2.908</ele>
        <time>2018-12-28T02:47:20Z</time>
      </trkpt>
      <trkpt lat="37.765520" lon="-121.347490">
        <ele>3.426</ele>
        <time>2018-12-28T02:47:40Z</time>
      </trkpt>
      <trkpt lat="37.765630" lon="-121.346360">
        <ele>5.474</ele>
        <time>2018-12-28T02:48:00Z</time>
      </trkpt>
      <trkpt lat="37.765700" lon="-121.345560">
        <ele>5.679</ele>
        <time>2018-12-28T02:48:20Z</time>
      </trkpt>
      <trkpt lat="37.765780" lon="-121.344820">
        <ele>5.568</ele>
        <time>2018-12-28T02:48:40Z</time>
      </trkpt>
      <trkpt lat="37.765860" lon="-121.344030">
        <ele>5.682</ele>
        <time>2018-12-28T02:49:00Z</time>
      </trkpt>
      <trkpt lat="37.765920" lon="-121.343390">
        <ele>5.698</ele>
        <time>2018-12-28T02:49:20Z</time>
      </trkpt>
      <trkpt lat="37.766020" lon="-121.342400">
        <ele>5.575</ele>
        <time>2018-12-28T02:49:40Z</time>
      </trkpt>
      <trkpt lat="37.766110" lon="-121.341470">
        <ele>5.459</ele>
        <time>2018-12-28T02:50:00Z</time>
      </trkpt>
      <trkpt lat="37.766220" lon="-121.340340">
        <ele>5.458</ele>
        <time>2018-12-28T02:50:20Z</time>
      </trkpt>
      <trkpt lat="37.766330" lon="-121.339250">
        <ele>5.452</ele>
        <time>2018-12-28T02:50:40Z</time>
      </trkpt>
      <trkpt lat="37.766400" lon="-121.338460">
        <ele>5.417</ele>
        <time>2018-12-28T02:51:00Z</time>
      </trkpt>
      <trkpt lat="37.766500" lon="-121.337450">
        <ele>5.308</ele>
        <time>2018-12-28T02:51:20Z</time>
      </trkpt>
      <trkpt lat="37.766590" lon="-121.336580">
        <ele>5.388</ele>
        <time>2018-12-28T02:51:40Z</time>
      </trkpt>
      <trkpt lat="37.766660" lon="-121.335750">
        <ele>5.386</ele>
        <time>2018-12-28T02:52:00Z</time>
      </trkpt>
      <trkpt lat="37.766740" lon="-121.334940">
        <ele>5.371</ele>
        <time>2018-12-28T02:52:20Z</time>
      </trkpt>
      <trkpt lat="37.766920" lon="-121.333110">
        <ele>5.370</ele>
        <time>2018-12-28T02:52:40Z</time>
      </trkpt>
      <trkpt lat="37.767000" lon="-121.332340">
        <ele>5.364</ele>
        <time>2018-12-28T02:53:00Z</time>
      </trkpt>
      <trkpt lat="37.767080" lon="-121.331640">
        <ele>5.340</ele>
        <time>2018-12-28T02:53:20Z</time>
      </trkpt>
      <trkpt lat="37.767140" lon="-121.331290">
        <ele>5.397</ele>
        <time>2018-12-28T02:53:40Z</time>
      </trkpt>
      <trkpt lat="37.767200" lon="-121.330930">
        <ele>5.381</ele>
        <time>2018-12-28T02:54:00Z</time>
      </trkpt>
      <trkpt lat="37.767340" lon="-121.330390">
        <ele>5.345</ele>
        <time>2018-12-28T02:54:20Z</time>
      </trkpt>
      <trkpt lat="37.767450" lon="-121.330010">
        <ele>5.347</ele>
        <time>2018-12-28T02:54:40Z</time>
      </trkpt>
      <trkpt lat="37.767620" lon="-121.329480">
        <ele>5.311</ele>
        <time>2018-12-28T02:55:00Z</time>
      </trkpt>
      <trkpt lat="37.767790" lon="-121.329040">
        <ele>5.308</ele>
        <time>2018-12-28T02:55:20Z</time>
      </trkpt>
      <trkpt lat="37.768010" lon="-121.328520">
        <ele>5.397</ele>
        <time>2018-12-28T02:55:40Z</time>
      </trkpt>
      <trkpt lat="37.768230" lon="-121.328070">
        <ele>5.355</ele>
        <time>2018-12-28T02:56:00Z</time>
      </trkpt>
      <trkpt lat="37.768490" lon="-121.327580">
        <ele>5.370</ele>
        <time>2018-12-28T02:56:20Z</time>
      </trkpt>
      <trkpt lat="37.768640" lon="-121.327340">
        <ele>5.369</ele>
        <time>2018-12-28T02:56:40Z</time>
      </trkpt>
      <trkpt lat="37.768810" lon="-121.327060">
        <ele>5.413</ele>
        <time>2018-12-28T02:57:00Z</time>
      </trkpt>
      <trkpt lat="37.769000" lon="-121.326780">
        <ele>5.489</ele>
        <time>2018-12-28T02:57:20Z</time>
      </trkpt>
      <trkpt lat="37.769080" lon="-121.326670">
        <ele>5.456</ele>
        <time>2018-12-28T02:57:40Z</time>
      </trkpt>
      <trkpt lat="37.769150" lon="-121.326580">
        <ele>5.410</ele>
        <time>2018-12-28T02:58:00Z</time>
      </trkpt>
      <trkpt lat="37.769410" lon="-121.326240">
        <ele>5.432</ele>
        <time>2018-12-28T02:58:20Z</time>
      </trkpt>
      <trkpt lat="37.769630" lon="-121.325970">
        <ele>5.392</ele>
        <time>2018-12-28T02:58:40Z</time>
      </trkpt>
      <trkpt lat="37.769880" lon="-121.325690">
        <ele>3.811</ele>
        <time>2018-12-28T02:59:00Z</time>
      </trkpt>
      <trkpt lat="37.770090" lon="-121.325470">
        <ele>2.608</ele>
        <time>2018-12-28T02:59:20Z</time>
      </trkpt>
      <trkpt lat="37.770340" lon="-121.325230">
        <ele>2.636</ele>
        <time>2018-12-28T02:59:40Z</time>
      </trkpt>
      <trkpt lat="37.770580" lon="-121.325020">
        <ele>2.934</ele>
        <time>2018-12-28T03:00:00Z</time>
      </trkpt>
      <trkpt lat="37.770750" lon="-121.324880">
        <ele>3.229</ele>
        <time>2018-12-28T03:00:20Z</time>
      </trkpt>
      <trkpt lat="37.770900" lon="-121.324770">
        <ele>3.578</ele>
        <time>2018-12-28T03:00:40Z</time>
      </trkpt>
      <trkpt lat="37.772370" lon="-121.323680">
        <ele>4.132</ele>
        <time>2018-12-28T03:01:00Z</time>
      </trkpt>
      <trkpt lat="37.772640" lon="-121.323460">
        <ele>4.038</ele>
        <time>2018-12-28T03:01:20Z</time>
      </trkpt>
      <trkpt lat="37.772890" lon="-121.323230">
        <ele>3.815</ele>
        <time>2018-12-28T03:01:40Z</time>
      </trkpt>
      <trkpt lat="37.773190" lon="-121.322940">
        <ele>4.189</ele>
        <time>2018-12-28T03:02:00Z</time>
      </trkpt>
      <trkpt lat="37.773320" lon="-121.322790">
        <ele>4.434</ele>
        <time>2018-12-28T03:02:20Z</time>
      </trkpt>
      <trkpt lat="37.773580" lon="-121.322510">
        <ele>4.755</ele>
        <time>2018-12-28T03:02:40Z</time>
      </trkpt>
      <trkpt lat="37.773810" lon="-121.322230">
        <ele>5.110</ele>
        <time>2018-12-28T03:03:00Z</time>
      </trkpt>
      <trkpt lat="37.774100" lon="-121.321870">
        <ele>5.208</ele>
        <time>2018-12-28T03:03:20Z</time>
      </trkpt>
      <trkpt lat="37.774360" lon="-121.321530">
        <ele>5.016</ele>
        <time>2018-12-28T03:03:40Z</time>
      </trkpt>
      <trkpt lat="37.775510" lon="-121.319990">
        <ele>5.094</ele>
        <time>2018-12-28T03:04:00Z</time>
      </trkpt>
      <trkpt lat="37.775520" lon="-121.319980">
        <ele>5.099</ele>
        <time>2018-12-28T03:04:20Z</time>
      </trkpt>
      <trkpt lat="37.775530" lon="-121.319970">
        <ele>5.038</ele>
        <time>2018-12-28T03:04:40Z</time>
      </trkpt>
      <trkpt lat="37.775680" lon="-121.319910">
        <ele>5.212</ele>
        <time>2018-12-28T03:05:00Z</time>
      </trkpt>
      <trkpt lat="37.775684" lon="-121.319906">
        <ele>5.288</ele>
        <time>2018-12-28T03:05:20Z</time>
      </trkpt>
      <trkpt lat="37.776510" lon="-121.318720">
        <ele>4.945</ele>
        <time>2018-12-28T03:05:40Z</time>
      </trkpt>
      <trkpt lat="37.777080" lon="-121.317930">
        <ele>5.079</ele>
        <time>2018-12-28T03:06:00Z</time>
      </trkpt>
      <trkpt lat="37.777520" lon="-121.317320">
        <ele>5.092</ele>
        <time>2018-12-28T03:06:20Z</time>
      </trkpt>
      <trkpt lat="37.777880" lon="-121.316830">
        <ele>5.073</ele>
        <time>2018-12-28T03:06:40Z</time>
      </trkpt>
      <trkpt lat="37.778290" lon="-121.316250">
        <ele>5.220</ele>
        <time>2018-12-28T03:07:00Z</time>
      </trkpt>
      <trkpt lat="37.778810" lon="-121.315530">
        <ele>5.208</ele>
        <time>2018-12-28T03:07:20Z</time>
      </trkpt>
      <trkpt lat="37.778930" lon="-121.315370">
        <ele>5.012</ele>
        <time>2018-12-28T03:07:40Z</time>
      </trkpt>
      <trkpt lat="37.779210" lon="-121.314980">
        <ele>4.610</ele>
        <time>2018-12-28T03:08:00Z</time>
      </trkpt>
      <trkpt lat="37.779850" lon="-121.314100">
        <ele>4.835</ele>
        <time>2018-12-28T03:08:20Z</time>
      </trkpt>
      <trkpt lat="37.780300" lon="-121.313470">
        <ele>5.064</ele>
        <time>2018-12-28T03:08:40Z</time>
      </trkpt>
      <trkpt lat="37.780560" lon="-121.313130">
        <ele>5.198</ele>
        <time>2018-12-28T03:09:00Z</time>
      </trkpt>
      <trkpt lat="37.780830" lon="-121.312760">
        <ele>5.414</ele>
        <time>2018-12-28T03:09:20Z</time>
      </trkpt>
      <trkpt lat="37.781270" lon="-121.312170">
        <ele>6.361</ele>
        <time>2018-12-28T03:09:40Z</time>
      </trkpt>
      <trkpt lat="37.781580" lon="-121.311760">
        <ele>6.745</ele>
        <time>2018-12-28T03:10:00Z</time>
      </trkpt>
      <trkpt lat="37.782000" lon="-121.311170">
        <ele>6.791</ele>
        <time>2018-12-28T03:10:20Z</time>
      </trkpt>
      <trkpt lat="37.782320" lon="-121.310720">
        <ele>6.781</ele>
        <time>2018-12-28T03:10:40Z</time>
      </trkpt>
      <trkpt lat="37.782660" lon="-121.310210">
        <ele>6.719</ele>
        <time>2018-12-28T03:11:00Z</time>
      </trkpt>
      <trkpt lat="37.782840" lon="-121.309920">
        <ele>6.708</ele>
        <time>2018-12-28T03:11:20Z</time>
      </trkpt>
      <trkpt lat="37.783200" lon="-121.309330">
        <ele>6.612</ele>
        <time>2018-12-28T03:11:40Z</time>
      </trkpt>
      <trkpt lat="37.783520" lon="-121.308820">
        <ele>6.680</ele>
        <time>2018-12-28T03:12:00Z</time>
      </trkpt>
      <trkpt lat="37.783810" lon="-121.308360">
        <ele>6.595</ele>
        <time>2018-12-28T03:12:20Z</time>
      </trkpt>
      <trkpt lat="37.783940" lon="-121.308140">
        <ele>6.434</ele>
        <time>2018-12-28T03:12:40Z</time>
      </trkpt>
      <trkpt lat="37.784520" lon="-121.307220">
        <ele>5.278</ele>
        <time>2018-12-28T03:13:00Z</time>
      </trkpt>
      <trkpt lat="37.785300" lon="-121.305990">
        <ele>3.284</ele>
        <time>2018-12-28T03:13:20Z</time>
      </trkpt>
      <trkpt lat="37.785300" lon="-121.305988">
        <ele>3.221</ele>
        <time>2018-12-28T03:13:40Z</time>
      </trkpt>
      <trkpt lat="37.785300" lon="-121.305840">
        <ele>3.815</ele>
        <time>2018-12-28T03:14:00Z</time>
      </trkpt>
      <trkpt lat="37.785300" lon="-121.305790">
        <ele>4.039</ele>
        <time>2018-12-28T03:14:20Z</time>
      </trkpt>
      <trkpt lat="37.785310" lon="-121.305780">
        <ele>4.101</ele>
        <time>2018-12-28T03:14:40Z</time>
      </trkpt>
      <trkpt lat="37.785310" lon="-121.305770">
        <ele>4.121</ele>
        <time>2018-12-28T03:15:00Z</time>
      </trkpt>
      <trkpt lat="37.785500" lon="-121.305430">
        <ele>5.008</ele>
        <time>2018-12-28T03:15:20Z</time>
      </trkpt>
      <trkpt lat="37.785670" lon="-121.305130">
        <ele>5.176</ele>
        <time>2018-12-28T03:15:40Z</time>
      </trkpt>
      <trkpt lat="37.785800" lon="-121.304890">
        <ele>4.214</ele>
        <time>2018-12-28T03:16:00Z</time>
      </trkpt>
      <trkpt lat="37.785900" lon="-121.304730">
        <ele>3.719</ele>
        <time>2018-12-28T03:16:20Z</time>
      </trkpt>
      <trkpt lat="37.786090" lon="-121.304380">
        <ele>3.388</ele>
        <time>2018-12-28T03:16:40Z</time>
      </trkpt>
      <trkpt lat="37.786240" lon="-121.304100">
        <ele>3.252</ele>
        <time>2018-12-28T03:17:00Z</time>
      </trkpt>
      <trkpt lat="37.786460" lon="-121.303720">
        <ele>5.098</ele>
        <time>2018-12-28T03:17:20Z</time>
      </trkpt>
      <trkpt lat="37.786690" lon="-121.303290">
        <ele>5.365</ele>
        <time>2018-12-28T03:17:40Z</time>
      </trkpt>
      <trkpt lat="37.786950" lon="-121.302830">
        <ele>5.289</ele>
        <time>2018-12-28T03:18:00Z</time>
      </trkpt>
      <trkpt lat="37.787230" lon="-121.302330">
        <ele>5.165</ele>
        <time>2018-12-28T03:18:20Z</time>
      </trkpt>
      <trkpt lat="37.787490" lon="-121.301870">
        <ele>5.168</ele>
        <time>2018-12-28T03:18:40Z</time>
      </trkpt>
      <trkpt lat="37.787920" lon="-121.301080">
        <ele>5.214</ele>
        <time>2018-12-28T03:19:00Z</time>
      </trkpt>
      <trkpt lat="37.787922" lon="-121.301075">
        <ele>5.208</ele>
        <time>2018-12-28T03:19:20Z</time>
      </trkpt>
      <trkpt lat="37.788220" lon="-121.300510">
        <ele>5.219</ele>
        <time>2018-12-28T03:19:40Z</time>
      </trkpt>
      <trkpt lat="37.788460" lon="-121.300040">
        <ele>5.137</ele>
        <time>2018-12-28T03:20:00Z</time>
      </trkpt>
      <trkpt lat="37.788670" lon="-121.299580">
        <ele>5.032</ele>
        <time>2018-12-28T03:20:20Z</time>
      </trkpt>
      <trkpt lat="37.788820" lon="-121.299250">
        <ele>5.091</ele>
        <time>2018-12-28T03:20:40Z</time>
      </trkpt>
      <trkpt lat="37.789000" lon="-121.298780">
        <ele>5.165</ele>
        <time>2018-12-28T03:21:00Z</time>
      </trkpt>
      <trkpt lat="37.789200" lon="-121.298210">
        <ele>5.151</ele>
        <time>2018-12-28T03:21:20Z</time>
      </trkpt>
      <trkpt lat="37.789340" lon="-121.297750">
        <ele>5.118</ele>
        <time>2018-12-28T03:21:40Z</time>
      </trkpt>
      <trkpt lat="37.789490" lon="-121.297250">
        <ele>5.162</ele>
        <time>2018-12-28T03:22:00Z</time>
      </trkpt>
      <trkpt lat="37.789610" lon="-121.296740">
        <ele>5.018</ele>
        <time>2018-12-28T03:22:20Z</time>
      </trkpt>
      <trkpt lat="37.789670" lon="-121.296450">
        <ele>5.098</ele>
        <time>2018-12-28T03:22:40Z</time>
      </trkpt>
      <trkpt lat="37.789760" lon="-121.296060">
        <ele>5.017</ele>
        <time>2018-12-28T03:23:00Z</time>
      </trkpt>
      <trkpt lat="37.789840" lon="-121.295580">
        <ele>5.008</ele>
        <time>2018-12-28T03:23:20Z</time>
      </trkpt>
      <trkpt lat="37.789890" lon="-121.295200">
        <ele>5.134</ele>
        <time>2018-12-28T03:23:40Z</time>
      </trkpt>
      <trkpt lat="37.789920" lon="-121.294990">
        <ele>5.212</ele>
        <time>2018-12-28T03:24:00Z</time>
      </trkpt>
      <trkpt lat="37.789960" lon="-121.294650">
        <ele>5.357</ele>
        <time>2018-12-28T03:24:20Z</time>
      </trkpt>
      <trkpt lat="37.789990" lon="-121.294290">
        <ele>5.436</ele>
        <time>2018-12-28T03:24:40Z</time>
      </trkpt>
      <trkpt lat="37.790020" lon="-121.293830">
        <ele>5.510</ele>
        <time>2018-12-28T03:25:00Z</time>
      </trkpt>
      <trkpt lat="37.790040" lon="-121.293590">
        <ele>5.556</ele>
        <time>2018-12-28T03:25:20Z</time>
      </trkpt>
      <trkpt lat="37.790050" lon="-121.293060">
        <ele>5.513</ele>
        <time>2018-12-28T03:25:40Z</time>
      </trkpt>
      <trkpt lat="37.790050" lon="-121.292590">
        <ele>5.597</ele>
        <time>2018-12-28T03:26:00Z</time>
      </trkpt>
      <trkpt lat="37.790030" lon="-121.292190">
        <ele>5.443</ele>
        <time>2018-12-28T03:26:20Z</time>
      </trkpt>
      <trkpt lat="37.790020" lon="-121.291810">
        <ele>5.464</ele>
        <time>2018-12-28T03:26:40Z</time>
      </trkpt>
      <trkpt lat="37.789970" lon="-121.291230">
        <ele>5.410</ele>
        <time>2018-12-28T03:27:00Z</time>
      </trkpt>
      <trkpt lat="37.789930" lon="-121.290890">
        <ele>5.408</ele>
        <time>2018-12-28T03:27:20Z</time>
      </trkpt>
      <trkpt lat="37.789900" lon="-121.290580">
        <ele>5.487</ele>
        <time>2018-12-28T03:27:40Z</time>
      </trkpt>
      <trkpt lat="37.789820" lon="-121.290080">
        <ele>5.435</ele>
        <time>2018-12-28T03:28:00Z</time>
      </trkpt>
      <trkpt lat="37.789750" lon="-121.289680">
        <ele>5.310</ele>
        <time>2018-12-28T03:28:20Z</time>
      </trkpt>
      <trkpt lat="37.789700" lon="-121.289440">
        <ele>5.069</ele>
        <time>2018-12-28T03:28:40Z</time>
      </trkpt>
      <trkpt lat="37.789590" lon="-121.288930">
        <ele>4.053</ele>
        <time>2018-12-28T03:29:00Z</time>
      </trkpt>
      <trkpt lat="37.789510" lon="-121.288590">
        <ele>3.949</ele>
        <time>2018-12-28T03:29:20Z</time>
      </trkpt>
      <trkpt lat="37.789390" lon="-121.288160">
        <ele>4.186</ele>
        <time>2018-12-28T03:29:40Z</time>
      </trkpt>
      <trkpt lat="37.789320" lon="-121.287880">
        <ele>4.210</ele>
        <time>2018-12-28T03:30:00Z</time>
      </trkpt>
      <trkpt lat="37.789260" lon="-121.287660">
        <ele>4.475</ele>
        <time>2018-12-28T03:30:20Z</time>
      </trkpt>
      <trkpt lat="37.789060" lon="-121.286890">
        <ele>4.928</ele>
        <time>2018-12-28T03:30:40Z</time>
      </trkpt>
      <trkpt lat="37.788950" lon="-121.286440">
        <ele>5.120</ele>
        <time>2018-12-28T03:31:00Z</time>
      </trkpt>
      <trkpt lat="37.788710" lon="-121.285560">
        <ele>5.308</ele>
        <time>2018-12-28T03:31:20Z</time>
      </trkpt>
      <trkpt lat="37.788470" lon="-121.284650">
        <ele>5.330</ele>
        <time>2018-12-28T03:31:40Z</time>
      </trkpt>
      <trkpt lat="37.788180" lon="-121.283540">
        <ele>5.248</ele>
        <time>2018-12-28T03:32:00Z</time>
      </trkpt>
      <trkpt lat="37.788010" lon="-121.282910">
        <ele>5.043</ele>
        <time>2018-12-28T03:32:20Z</time>
      </trkpt>
      <trkpt lat="37.787540" lon="-121.281080">
        <ele>4.252</ele>
        <time>2018-12-28T03:32:40Z</time>
      </trkpt>
      <trkpt lat="37.787310" lon="-121.280200">
        <ele>4.136</ele>
        <time>2018-12-28T03:33:00Z</time>
      </trkpt>
      <trkpt lat="37.787060" lon="-121.279240">
        <ele>5.242</ele>
        <time>2018-12-28T03:33:20Z</time>
      </trkpt>
      <trkpt lat="37.786930" lon="-121.278770">
        <ele>5.469</ele>
        <time>2018-12-28T03:33:40Z</time>
      </trkpt>
      <trkpt lat="37.786850" lon="-121.278470">
        <ele>5.413</ele>
        <time>2018-12-28T03:34:00Z</time>
      </trkpt>
      <trkpt lat="37.786740" lon="-121.278050">
        <ele>5.517</ele>
        <time>2018-12-28T03:34:20Z</time>
      </trkpt>
      <trkpt lat="37.786580" lon="-121.277480">
        <ele>5.587</ele>
        <time>2018-12-28T03:34:40Z</time>
      </trkpt>
      <trkpt lat="37.786370" lon="-121.276650">
        <ele>5.415</ele>
        <time>2018-12-28T03:35:00Z</time>
      </trkpt>
      <trkpt lat="37.786170" lon="-121.275880">
        <ele>5.408</ele>
        <time>2018-12-28T03:35:20Z</time>
      </trkpt>
      <trkpt lat="37.785890" lon="-121.274850">
        <ele>5.494</ele>
        <time>2018-12-28T03:35:40Z</time>
      </trkpt>
      <trkpt lat="37.785510" lon="-121.273420">
        <ele>5.172</ele>
        <time>2018-12-28T03:36:00Z</time>
      </trkpt>
      <trkpt lat="37.785140" lon="-121.272010">
        <ele>5.147</ele>
        <time>2018-12-28T03:36:20Z</time>
      </trkpt>
      <trkpt lat="37.784900" lon="-121.271090">
        <ele>5.366</ele>
        <time>2018-12-28T03:36:40Z</time>
      </trkpt>
      <trkpt lat="37.784780" lon="-121.270640">
        <ele>5.550</ele>
        <time>2018-12-28T03:37:00Z</time>
      </trkpt>
      <trkpt lat="37.784750" lon="-121.270520">
        <ele>5.546</ele>
        <time>2018-12-28T03:37:20Z</time>
      </trkpt>
      <trkpt lat="37.784660" lon="-121.270190">
        <ele>5.863</ele>
        <time>2018-12-28T03:37:40Z</time>
      </trkpt>
      <trkpt lat="37.784380" lon="-121.269150">
        <ele>6.717</ele>
        <time>2018-12-28T03:38:00Z</time>
      </trkpt>
      <trkpt lat="37.784180" lon="-121.268380">
        <ele>6.842</ele>
        <time>2018-12-28T03:38:20Z</time>
      </trkpt>
      <trkpt lat="37.783900" lon="-121.267340">
        <ele>7.222</ele>
        <time>2018-12-28T03:38:40Z</time>
      </trkpt>
      <trkpt lat="37.783720" lon="-121.266670">
        <ele>7.114</ele>
        <time>2018-12-28T03:39:00Z</time>
      </trkpt>
      <trkpt lat="37.783610" lon="-121.266200">
        <ele>7.008</ele>
        <time>2018-12-28T03:39:20Z</time>
      </trkpt>
      <trkpt lat="37.783490" lon="-121.265680">
        <ele>7.087</ele>
        <time>2018-12-28T03:39:40Z</time>
      </trkpt>
      <trkpt lat="37.783410" lon="-121.265280">
        <ele>7.065</ele>
        <time>2018-12-28T03:40:00Z</time>
      </trkpt>
      <trkpt lat="37.783320" lon="-121.264830">
        <ele>6.930</ele>
        <time>2018-12-28T03:40:20Z</time>
      </trkpt>
      <trkpt lat="37.783240" lon="-121.264330">
        <ele>6.989</ele>
        <time>2018-12-28T03:40:40Z</time>
      </trkpt>
      <trkpt lat="37.783190" lon="-121.263960">
        <ele>6.893</ele>
        <time>2018-12-28T03:41:00Z</time>
      </trkpt>
      <trkpt lat="37.783130" lon="-121.263470">
        <ele>6.839</ele>
        <time>2018-12-28T03:41:20Z</time>
      </trkpt>
      <trkpt lat="37.783080" lon="-121.262940">
        <ele>6.816</ele>
        <time>2018-12-28T03:41:40Z</time>
      </trkpt>
      <trkpt lat="37.783050" lon="-121.262480">
        <ele>6.880</ele>
        <time>2018-12-28T03:42:00Z</time>
      </trkpt>
      <trkpt lat="37.783020" lon="-121.261980">
        <ele>6.891</ele>
        <time>2018-12-28T03:42:20Z</time>
      </trkpt>
      <trkpt lat="37.783010" lon="-121.261520">
        <ele>6.881</ele>
        <time>2018-12-28T03:42:40Z</time>
      </trkpt>
      <trkpt lat="37.783010" lon="-121.261190">
        <ele>6.819</ele>
        <time>2018-12-28T03:43:00Z</time>
      </trkpt>
      <trkpt lat="37.783010" lon="-121.260860">
        <ele>6.808</ele>
        <time>2018-12-28T03:43:20Z</time>
      </trkpt>
      <trkpt lat="37.783020" lon="-121.258850">
        <ele>6.942</ele>
        <time>2018-12-28T03:43:40Z</time>
      </trkpt>
      <trkpt lat="37.783030" lon="-121.257750">
        <ele>7.180</ele>
        <time>2018-12-28T03:44:00Z</time>
      </trkpt>
      <trkpt lat="37.783070" lon="-121.246680">
        <ele>8.365</ele>
        <time>2018-12-28T03:44:20Z</time>
      </trkpt>
      <trkpt lat="37.783080" lon="-121.246150">
        <ele>8.334</ele>
        <time>2018-12-28T03:44:40Z</time>
      </trkpt>
      <trkpt lat="37.783080" lon="-121.244790">
        <ele>8.418</ele>
        <time>2018-12-28T03:45:00Z</time>
      </trkpt>
      <trkpt lat="37.783080" lon="-121.244120">
        <ele>8.414</ele>
        <time>2018-12-28T03:45:20Z</time>
      </trkpt>
      <trkpt lat="37.783090" lon="-121.243460">
        <ele>8.451</ele>
        <time>2018-12-28T03:45:40Z</time>
      </trkpt>
      <trkpt lat="37.783090" lon="-121.242790">
        <ele>8.585</ele>
        <time>2018-12-28T03:46:00Z</time>
      </trkpt>
      <trkpt lat="37.783100" lon="-121.242130">
        <ele>8.577</ele>
        <time>2018-12-28T03:46:20Z</time>
      </trkpt>
      <trkpt lat="37.783100" lon="-121.241130">
        <ele>8.561</ele>
        <time>2018-12-28T03:46:40Z</time>
      </trkpt>
      <trkpt lat="37.783100" lon="-121.240550">
        <ele>8.627</ele>
        <time>2018-12-28T03:47:00Z</time>
      </trkpt>
      <trkpt lat="37.783100" lon="-121.239670">
        <ele>8.608</ele>
        <time>2018-12-28T03:47:20Z</time>
      </trkpt>
      <trkpt lat="37.783110" lon="-121.239160">
        <ele>8.650</ele>
        <time>2018-12-28T03:47:40Z</time>
      </trkpt>
      <trkpt lat="37.783110" lon="-121.237790">
        <ele>8.718</ele>
        <time>2018-12-28T03:48:00Z</time>
      </trkpt>
      <trkpt lat="37.783120" lon="-121.237110">
        <ele>8.823</ele>
        <time>2018-12-28T03:48:20Z</time>
      </trkpt>
      <trkpt lat="37.783120" lon="-121.236760">
        <ele>8.962</ele>
        <time>2018-12-28T03:48:40Z</time>
      </trkpt>
      <trkpt lat="37.783120" lon="-121.236260">
        <ele>8.936</ele>
        <time>2018-12-28T03:49:00Z</time>
      </trkpt>
      <trkpt lat="37.783120" lon="-121.235760">
        <ele>8.932</ele>
        <time>2018-12-28T03:49:20Z</time>
      </trkpt>
      <trkpt lat="37.783130" lon="-121.234580">
        <ele>8.939</ele>
        <time>2018-12-28T03:49:40Z</time>
      </trkpt>
      <trkpt lat="37.783130" lon="-121.234260">
        <ele>8.993</ele>
        <time>2018-12-28T03:50:00Z</time>
      </trkpt>
      <trkpt lat="37.783130" lon="-121.233760">
        <ele>8.911</ele>
        <time>2018-12-28T03:50:20Z</time>
      </trkpt>
      <trkpt lat="37.783130" lon="-121.233250">
        <ele>9.121</ele>
        <time>2018-12-28T03:50:40Z</time>
      </trkpt>
      <trkpt lat="37.783140" lon="-121.232270">
        <ele>9.203</ele>
        <time>2018-12-28T03:51:00Z</time>
      </trkpt>
      <trkpt lat="37.783140" lon="-121.232090">
        <ele>9.308</ele>
        <time>2018-12-28T03:51:20Z</time>
      </trkpt>
      <trkpt lat="37.783140" lon="-121.231080">
        <ele>9.414</ele>
        <time>2018-12-28T03:51:40Z</time>
      </trkpt>
      <trkpt lat="37.783140" lon="-121.230570">
        <ele>9.592</ele>
        <time>2018-12-28T03:52:00Z</time>
      </trkpt>
      <trkpt lat="37.783150" lon="-121.229500">
        <ele>9.817</ele>
        <time>2018-12-28T03:52:20Z</time>
      </trkpt>
      <trkpt lat="37.783150" lon="-121.228560">
        <ele>10.026</ele>
        <time>2018-12-28T03:52:40Z</time>
      </trkpt>
      <trkpt lat="37.783150" lon="-121.228320">
        <ele>10.090</ele>
        <time>2018-12-28T03:53:00Z</time>
      </trkpt>
      <trkpt lat="37.783160" lon="-121.228090">
        <ele>10.136</ele>
        <time>2018-12-28T03:53:20Z</time>
      </trkpt>
      <trkpt lat="37.783170" lon="-121.225570">
        <ele>10.343</ele>
        <time>2018-12-28T03:53:40Z</time>
      </trkpt>
      <trkpt lat="37.783170" lon="-121.224050">
        <ele>10.597</ele>
        <time>2018-12-28T03:54:00Z</time>
      </trkpt>
      <trkpt lat="37.783180" lon="-121.223060">
        <ele>10.619</ele>
        <time>2018-12-28T03:54:20Z</time>
      </trkpt>
      <trkpt lat="37.783180" lon="-121.221870">
        <ele>10.609</ele>
        <time>2018-12-28T03:54:40Z</time>
      </trkpt>
      <trkpt lat="37.783180" lon="-121.221480">
        <ele>10.719</ele>
        <time>2018-12-28T03:55:00Z</time>
      </trkpt>
      <trkpt lat="37.783200" lon="-121.215640">
        <ele>12.308</ele>
        <time>2018-12-28T03:55:20Z</time>
      </trkpt>
      <trkpt lat="37.783200" lon="-121.210750">
        <ele>12.154</ele>
        <time>2018-12-28T03:55:40Z</time>
      </trkpt>
      <trkpt lat="37.783200" lon="-121.209890">
        <ele>12.362</ele>
        <time>2018-12-28T03:56:00Z</time>
      </trkpt>
      <trkpt lat="37.783200" lon="-121.207290">
        <ele>12.637</ele>
        <time>2018-12-28T03:56:20Z</time>
      </trkpt>
      <trkpt lat="37.783200" lon="-121.202580">
        <ele>12.886</ele>
        <time>2018-12-28T03:56:40Z</time>
      </trkpt>
      <trkpt lat="37.783200" lon="-121.201900">
        <ele>12.940</ele>
        <time>2018-12-28T03:57:00Z</time>
      </trkpt>
      <trkpt lat="37.783200" lon="-121.200690">
        <ele>13.296</ele>
        <time>2018-12-28T03:57:20Z</time>
      </trkpt>
      <trkpt lat="37.783200" lon="-121.199470">
        <ele>13.773</ele>
        <time>2018-12-28T03:57:40Z</time>
      </trkpt>
      <trkpt lat="37.783200" lon="-121.196920">
        <ele>14.437</ele>
        <time>2018-12-28T03:58:00Z</time>
      </trkpt>
      <trkpt lat="37.783210" lon="-121.196610">
        <ele>14.425</ele>
        <time>2018-12-28T03:58:20Z</time>
      </trkpt>
      <trkpt lat="37.783200" lon="-121.196290">
        <ele>14.426</ele>
        <time>2018-12-28T03:58:40Z</time>
      </trkpt>
      <trkpt lat="37.783200" lon="-121.195320">
        <ele>14.308</ele>
        <time>2018-12-28T03:59:00Z</time>
      </trkpt>
      <trkpt lat="37.783200" lon="-121.194570">
        <ele>14.208</ele>
        <time>2018-12-28T03:59:20Z</time>
      </trkpt>
      <trkpt lat="37.783196" lon="-121.194573">
        <ele>14.245</ele>
        <time>2018-12-28T03:59:40Z</time>
      </trkpt>
      <trkpt lat="37.783210" lon="-121.194450">
        <ele>14.253</ele>
        <time>2018-12-28T04:00:00Z</time>
      </trkpt>
      <trkpt lat="37.783210" lon="-121.194380">
        <ele>14.228</ele>
        <time>2018-12-28T04:00:20Z</time>
      </trkpt>
      <trkpt lat="37.783210" lon="-121.193880">
        <ele>14.197</ele>
        <time>2018-12-28T04:00:40Z</time>
      </trkpt>
      <trkpt lat="37.783220" lon="-121.193370">
        <ele>14.121</ele>
        <time>2018-12-28T04:01:00Z</time>
      </trkpt>
      <trkpt lat="37.783220" lon="-121.193160">
        <ele>14.057</ele>
        <time>2018-12-28T04:01:20Z</time>
      </trkpt>
      <trkpt lat="37.783230" lon="-121.193030">
        <ele>14.014</ele>
        <time>2018-12-28T04:01:40Z</time>
      </trkpt>
      <trkpt lat="37.783250" lon="-121.192860">
        <ele>14.018</ele>
        <time>2018-12-28T04:02:00Z</time>
      </trkpt>
      <trkpt lat="37.783270" lon="-121.192740">
        <ele>14.089</ele>
        <time>2018-12-28T04:02:20Z</time>
      </trkpt>
      <trkpt lat="37.783300" lon="-121.192600">
        <ele>14.006</ele>
        <time>2018-12-28T04:02:40Z</time>
      </trkpt>
      <trkpt lat="37.783310" lon="-121.192500">
        <ele>14.026</ele>
        <time>2018-12-28T04:03:00Z</time>
      </trkpt>
      <trkpt lat="37.783330" lon="-121.192410">
        <ele>14.008</ele>
        <time>2018-12-28T04:03:20Z</time>
      </trkpt>
      <trkpt lat="37.783380" lon="-121.192230">
        <ele>13.991</ele>
        <time>2018-12-28T04:03:40Z</time>
      </trkpt>
      <trkpt lat="37.783420" lon="-121.192100">
        <ele>13.969</ele>
        <time>2018-12-28T04:04:00Z</time>
      </trkpt>
      <trkpt lat="37.783480" lon="-121.191900">
        <ele>13.914</ele>
        <time>2018-12-28T04:04:20Z</time>
      </trkpt>
      <trkpt lat="37.783540" lon="-121.191750">
        <ele>13.943</ele>
        <time>2018-12-28T04:04:40Z</time>
      </trkpt>
      <trkpt lat="37.783610" lon="-121.191570">
        <ele>13.967</ele>
        <time>2018-12-28T04:05:00Z</time>
      </trkpt>
      <trkpt lat="37.783650" lon="-121.191470">
        <ele>13.923</ele>
        <time>2018-12-28T04:05:20Z</time>
      </trkpt>
      <trkpt lat="37.783700" lon="-121.191360">
        <ele>13.990</ele>
        <time>2018-12-28T04:05:40Z</time>
      </trkpt>
      <trkpt lat="37.783770" lon="-121.191230">
        <ele>13.924</ele>
        <time>2018-12-28T04:06:00Z</time>
      </trkpt>
      <trkpt lat="37.783850" lon="-121.191090">
        <ele>13.911</ele>
        <time>2018-12-28T04:06:20Z</time>
      </trkpt>
      <trkpt lat="37.783940" lon="-121.190930">
        <ele>13.921</ele>
        <time>2018-12-28T04:06:40Z</time>
      </trkpt>
      <trkpt lat="37.784000" lon="-121.190830">
        <ele>13.903</ele>
        <time>2018-12-28T04:07:00Z</time>
      </trkpt>
      <trkpt lat="37.784200" lon="-121.190570">
        <ele>13.908</ele>
        <time>2018-12-28T04:07:20Z</time>
      </trkpt>
      <trkpt lat="37.784500" lon="-121.190170">
        <ele>13.934</ele>
        <time>2018-12-28T04:07:40Z</time>
      </trkpt>
      <trkpt lat="37.784690" lon="-121.189920">
        <ele>13.932</ele>
        <time>2018-12-28T04:08:00Z</time>
      </trkpt>
      <trkpt lat="37.784770" lon="-121.189810">
        <ele>13.967</ele>
        <time>2018-12-28T04:08:20Z</time>
      </trkpt>
      <trkpt lat="37.784830" lon="-121.189720">
        <ele>13.916</ele>
        <time>2018-12-28T04:08:40Z</time>
      </trkpt>
      <trkpt lat="37.784860" lon="-121.189660">
        <ele>13.950</ele>
        <time>2018-12-28T04:09:00Z</time>
      </trkpt>
      <trkpt lat="37.784900" lon="-121.189590">
        <ele>13.966</ele>
        <time>2018-12-28T04:09:20Z</time>
      </trkpt>
      <trkpt lat="37.784960" lon="-121.189490">
        <ele>14.013</ele>
        <time>2018-12-28T04:09:40Z</time>
      </trkpt>
      <trkpt lat="37.785020" lon="-121.189380">
        <ele>14.027</ele>
        <time>2018-12-28T04:10:00Z</time>
      </trkpt>
      <trkpt lat="37.785070" lon="-121.189260">
        <ele>14.011</ele>
        <time>2018-12-28T04:10:20Z</time>
      </trkpt>
      <trkpt lat="37.785110" lon="-121.189150">
        <ele>14.021</ele>
        <time>2018-12-28T04:10:40Z</time>
      </trkpt>
      <trkpt lat="37.785150" lon="-121.189050">
        <ele>14.103</ele>
        <time>2018-12-28T04:11:00Z</time>
      </trkpt>
      <trkpt lat="37.785180" lon="-121.188950">
        <ele>14.108</ele>
        <time>2018-12-28T04:11:20Z</time>
      </trkpt>
      <trkpt lat="37.785210" lon="-121.188850">
        <ele>14.124</ele>
        <time>2018-12-28T04:11:40Z</time>
      </trkpt>
      <trkpt lat="37.785250" lon="-121.188700">
        <ele>14.162</ele>
        <time>2018-12-28T04:12:00Z</time>
      </trkpt>
      <trkpt lat="37.785280" lon="-121.188540">
        <ele>14.277</ele>
        <time>2018-12-28T04:12:20Z</time>
      </trkpt>
      <trkpt lat="37.785310" lon="-121.188410">
        <ele>14.276</ele>
        <time>2018-12-28T04:12:40Z</time>
      </trkpt>
      <trkpt lat="37.785320" lon="-121.188280">
        <ele>14.250</ele>
        <time>2018-12-28T04:13:00Z</time>
      </trkpt>
      <trkpt lat="37.785330" lon="-121.188120">
        <ele>14.256</ele>
        <time>2018-12-28T04:13:20Z</time>
      </trkpt>
      <trkpt lat="37.785340" lon="-121.188010">
        <ele>14.373</ele>
        <time>2018-12-28T04:13:40Z</time>
      </trkpt>
      <trkpt lat="37.785340" lon="-121.187890">
        <ele>14.337</ele>
        <time>2018-12-28T04:14:00Z</time>
      </trkpt>
      <trkpt lat="37.785340" lon="-121.187780">
        <ele>14.378</ele>
        <time>2018-12-28T04:14:20Z</time>
      </trkpt>
      <trkpt lat="37.785340" lon="-121.187690">
        <ele>14.333</ele>
        <time>2018-12-28T04:14:40Z</time>
      </trkpt>
      <trkpt lat="37.785330" lon="-121.187570">
        <ele>14.326</ele>
        <time>2018-12-28T04:15:00Z</time>
      </trkpt>
      <trkpt lat="37.785320" lon="-121.187470">
        <ele>14.308</ele>
        <time>2018-12-28T04:15:20Z</time>
      </trkpt>
      <trkpt lat="37.785290" lon="-121.187280">
        <ele>14.350</ele>
        <time>2018-12-28T04:15:40Z</time>
      </trkpt>
      <trkpt lat="37.785270" lon="-121.187160">
        <ele>14.358</ele>
        <time>2018-12-28T04:16:00Z</time>
      </trkpt>
      <trkpt lat="37.785250" lon="-121.187080">
        <ele>14.393</ele>
        <time>2018-12-28T04:16:20Z</time>
      </trkpt>
      <trkpt lat="37.785240" lon="-121.187000">
        <ele>14.442</ele>
        <time>2018-12-28T04:16:40Z</time>
      </trkpt>
      <trkpt lat="37.785220" lon="-121.186930">
        <ele>14.426</ele>
        <time>2018-12-28T04:17:00Z</time>
      </trkpt>
      <trkpt lat="37.785190" lon="-121.186840">
        <ele>14.452</ele>
        <time>2018-12-28T04:17:20Z</time>
      </trkpt>
      <trkpt lat="37.785170" lon="-121.186770">
        <ele>14.419</ele>
        <time>2018-12-28T04:17:40Z</time>
      </trkpt>
      <trkpt lat="37.785150" lon="-121.186700">
        <ele>14.473</ele>
        <time>2018-12-28T04:18:00Z</time>
      </trkpt>
      <trkpt lat="37.785110" lon="-121.186600">
        <ele>14.476</ele>
        <time>2018-12-28T04:18:20Z</time>
      </trkpt>
      <trkpt lat="37.785040" lon="-121.186410">
        <ele>14.490</ele>
        <time>2018-12-28T04:18:40Z</time>
      </trkpt>
      <trkpt lat="37.784970" lon="-121.186280">
        <ele>14.419</ele>
        <time>2018-12-28T04:19:00Z</time>
      </trkpt>
      <trkpt lat="37.784940" lon="-121.186230">
        <ele>14.308</ele>
        <time>2018-12-28T04:19:20Z</time>
      </trkpt>
      <trkpt lat="37.784910" lon="-121.186160">
        <ele>14.310</ele>
        <time>2018-12-28T04:19:40Z</time>
      </trkpt>
      <trkpt lat="37.784860" lon="-121.186070">
        <ele>14.328</ele>
        <time>2018-12-28T04:20:00Z</time>
      </trkpt>
      <trkpt lat="37.784770" lon="-121.185930">
        <ele>14.383</ele>
        <time>2018-12-28T04:20:20Z</time>
      </trkpt>
      <trkpt lat="37.784690" lon="-121.185830">
        <ele>14.322</ele>
        <time>2018-12-28T04:20:40Z</time>
      </trkpt>
      <trkpt lat="37.784630" lon="-121.185750">
        <ele>14.316</ele>
        <time>2018-12-28T04:21:00Z</time>
      </trkpt>
      <trkpt lat="37.784560" lon="-121.185670">
        <ele>14.392</ele>
        <time>2018-12-28T04:21:20Z</time>
      </trkpt>
      <trkpt lat="37.784500" lon="-121.185600">
        <ele>14.349</ele>
        <time>2018-12-28T04:21:40Z</time>
      </trkpt>
      <trkpt lat="37.784460" lon="-121.185560">
        <ele>14.353</ele>
        <time>2018-12-28T04:22:00Z</time>
      </trkpt>
      <trkpt lat="37.784370" lon="-121.185470">
        <ele>14.343</ele>
        <time>2018-12-28T04:22:20Z</time>
      </trkpt>
      <trkpt lat="37.784220" lon="-121.185340">
        <ele>14.264</ele>
        <time>2018-12-28T04:22:40Z</time>
      </trkpt>
      <trkpt lat="37.784190" lon="-121.185320">
        <ele>14.210</ele>
        <time>2018-12-28T04:23:00Z</time>
      </trkpt>
      <trkpt lat="37.784130" lon="-121.185280">
        <ele>14.208</ele>
        <time>2018-12-28T04:23:20Z</time>
      </trkpt>
      <trkpt lat="37.784090" lon="-121.185250">
        <ele>14.227</ele>
        <time>2018-12-28T04:23:40Z</time>
      </trkpt>
      <trkpt lat="37.783970" lon="-121.185180">
        <ele>14.255</ele>
        <time>2018-12-28T04:24:00Z</time>
      </trkpt>
      <trkpt lat="37.783880" lon="-121.185130">
        <ele>14.220</ele>
        <time>2018-12-28T04:24:20Z</time>
      </trkpt>
      <trkpt lat="37.783790" lon="-121.185080">
        <ele>14.259</ele>
        <time>2018-12-28T04:24:40Z</time>
      </trkpt>
      <trkpt lat="37.783730" lon="-121.185050">
        <ele>14.263</ele>
        <time>2018-12-28T04:25:00Z</time>
      </trkpt>
      <trkpt lat="37.783670" lon="-121.185030">
        <ele>14.259</ele>
        <time>2018-12-28T04:25:20Z</time>
      </trkpt>
      <trkpt lat="37.783530" lon="-121.184990">
        <ele>14.236</ele>
        <time>2018-12-28T04:25:40Z</time>
      </trkpt>
      <trkpt lat="37.783440" lon="-121.184960">
        <ele>14.210</ele>
        <time>2018-12-28T04:26:00Z</time>
      </trkpt>
      <trkpt lat="37.783370" lon="-121.184940">
        <ele>14.258</ele>
        <time>2018-12-28T04:26:20Z</time>
      </trkpt>
      <trkpt lat="37.783300" lon="-121.184930">
        <ele>14.252</ele>
        <time>2018-12-28T04:26:40Z</time>
      </trkpt>
      <trkpt lat="37.783250" lon="-121.184920">
        <ele>14.217</ele>
        <time>2018-12-28T04:27:00Z</time>
      </trkpt>
      <trkpt lat="37.783190" lon="-121.184920">
        <ele>14.208</ele>
        <time>2018-12-28T04:27:20Z</time>
      </trkpt>
      <trkpt lat="37.783120" lon="-121.184910">
        <ele>14.298</ele>
        <time>2018-12-28T04:27:40Z</time>
      </trkpt>
      <trkpt lat="37.783000" lon="-121.184910">
        <ele>14.236</ele>
        <time>2018-12-28T04:28:00Z</time>
      </trkpt>
      <trkpt lat="37.782940" lon="-121.184910">
        <ele>14.231</ele>
        <time>2018-12-28T04:28:20Z</time>
      </trkpt>
      <trkpt lat="37.782820" lon="-121.184920">
        <ele>14.380</ele>
        <time>2018-12-28T04:28:40Z</time>
      </trkpt>
      <trkpt lat="37.782750" lon="-121.184940">
        <ele>14.354</ele>
        <time>2018-12-28T04:29:00Z</time>
      </trkpt>
      <trkpt lat="37.782690" lon="-121.184950">
        <ele>14.310</ele>
        <time>2018-12-28T04:29:20Z</time>
      </trkpt>
      <trkpt lat="37.782630" lon="-121.184970">
        <ele>14.337</ele>
        <time>2018-12-28T04:29:40Z</time>
      </trkpt>
      <trkpt lat="37.782550" lon="-121.185020">
        <ele>14.331</ele>
        <time>2018-12-28T04:30:00Z</time>
      </trkpt>
      <trkpt lat="37.782500" lon="-121.185040">
        <ele>14.348</ele>
        <time>2018-12-28T04:30:20Z</time>
      </trkpt>
      <trkpt lat="37.782460" lon="-121.185070">
        <ele>14.361</ele>
        <time>2018-12-28T04:30:40Z</time>
      </trkpt>
      <trkpt lat="37.782410" lon="-121.185110">
        <ele>14.317</ele>
        <time>2018-12-28T04:31:00Z</time>
      </trkpt>
      <trkpt lat="37.782370" lon="-121.185140">
        <ele>14.308</ele>
        <time>2018-12-28T04:31:20Z</time>
      </trkpt>
      <trkpt lat="37.782300" lon="-121.185220">
        <ele>14.317</ele>
        <time>2018-12-28T04:31:40Z</time>
      </trkpt>
      <trkpt lat="37.782260" lon="-121.185270">
        <ele>14.345</ele>
        <time>2018-12-28T04:32:00Z</time>
      </trkpt>
      <trkpt lat="37.782210" lon="-121.185330">
        <ele>14.310</ele>
        <time>2018-12-28T04:32:20Z</time>
      </trkpt>
      <trkpt lat="37.782180" lon="-121.185390">
        <ele>14.329</ele>
        <time>2018-12-28T04:32:40Z</time>
      </trkpt>
      <trkpt lat="37.782160" lon="-121.185420">
        <ele>14.333</ele>
        <time>2018-12-28T04:33:00Z</time>
      </trkpt>
      <trkpt lat="37.782130" lon="-121.185480">
        <ele>14.319</ele>
        <time>2018-12-28T04:33:20Z</time>
      </trkpt>
      <trkpt lat="37.782110" lon="-121.185520">
        <ele>14.356</ele>
        <time>2018-12-28T04:33:40Z</time>
      </trkpt>
      <trkpt lat="37.782080" lon="-121.185600">
        <ele>14.340</ele>
        <time>2018-12-28T04:34:00Z</time>
      </trkpt>
      <trkpt lat="37.782060" lon="-121.185650">
        <ele>14.396</ele>
        <time>2018-12-28T04:34:20Z</time>
      </trkpt>
      <trkpt lat="37.782050" lon="-121.185710">
        <ele>14.331</ele>
        <time>2018-12-28T04:34:40Z</time>
      </trkpt>
      <trkpt lat="37.782030" lon="-121.185790">
        <ele>14.324</ele>
        <time>2018-12-28T04:35:00Z</time>
      </trkpt>
      <trkpt lat="37.782020" lon="-121.185870">
        <ele>14.308</ele>
        <time>2018-12-28T04:35:20Z</time>
      </trkpt>
      <trkpt lat="37.782010" lon="-121.185940">
        <ele>14.322</ele>
        <time>2018-12-28T04:35:40Z</time>
      </trkpt>
      <trkpt lat="37.782000" lon="-121.186020">
        <ele>14.320</ele>
        <time>2018-12-28T04:36:00Z</time>
      </trkpt>
      <trkpt lat="37.782000" lon="-121.186110">
        <ele>14.385</ele>
        <time>2018-12-28T04:36:20Z</time>
      </trkpt>
      <trkpt lat="37.782000" lon="-121.186180">
        <ele>14.394</ele>
        <time>2018-12-28T04:36:40Z</time>
      </trkpt>
      <trkpt lat="37.782010" lon="-121.186280">
        <ele>14.358</ele>
        <time>2018-12-28T04:37:00Z</time>
      </trkpt>
      <trkpt lat="37.782020" lon="-121.186350">
        <ele>14.364</ele>
        <time>2018-12-28T04:37:20Z</time>
      </trkpt>
      <trkpt lat="37.782040" lon="-121.186420">
        <ele>14.381</ele>
        <time>2018-12-28T04:37:40Z</time>
      </trkpt>
      <trkpt lat="37.782060" lon="-121.186500">
        <ele>14.375</ele>
        <time>2018-12-28T04:38:00Z</time>
      </trkpt>
      <trkpt lat="37.782080" lon="-121.186570">
        <ele>14.348</ele>
        <time>2018-12-28T04:38:20Z</time>
      </trkpt>
      <trkpt lat="37.782120" lon="-121.186670">
        <ele>14.361</ele>
        <time>2018-12-28T04:38:40Z</time>
      </trkpt>
      <trkpt lat="37.782160" lon="-121.186740">
        <ele>14.317</ele>
        <time>2018-12-28T04:39:00Z</time>
      </trkpt>
      <trkpt lat="37.782190" lon="-121.186800">
        <ele>14.308</ele>
        <time>2018-12-28T04:39:20Z</time>
      </trkpt>
      <trkpt lat="37.782210" lon="-121.186840">
        <ele>14.327</ele>
        <time>2018-12-28T04:39:40Z</time>
      </trkpt>
      <trkpt lat="37.782240" lon="-121.186880">
        <ele>14.355</ele>
        <time>2018-12-28T04:40:00Z</time>
      </trkpt>
      <trkpt lat="37.782270" lon="-121.186910">
        <ele>14.360</ele>
        <time>2018-12-28T04:40:20Z</time>
      </trkpt>
      <trkpt lat="37.782290" lon="-121.186940">
        <ele>14.319</ele>
        <time>2018-12-28T04:40:40Z</time>
      </trkpt>
      <trkpt lat="37.782340" lon="-121.187000">
        <ele>14.373</ele>
        <time>2018-12-28T04:41:00Z</time>
      </trkpt>
      <trkpt lat="37.782370" lon="-121.187030">
        <ele>14.299</ele>
        <time>2018-12-28T04:41:20Z</time>
      </trkpt>
      <trkpt lat="37.782430" lon="-121.187080">
        <ele>14.266</ele>
        <time>2018-12-28T04:41:40Z</time>
      </trkpt>
      <trkpt lat="37.782470" lon="-121.187120">
        <ele>14.270</ele>
        <time>2018-12-28T04:42:00Z</time>
      </trkpt>
      <trkpt lat="37.782500" lon="-121.187140">
        <ele>14.247</ele>
        <time>2018-12-28T04:42:20Z</time>
      </trkpt>
      <trkpt lat="37.782530" lon="-121.187160">
        <ele>14.229</ele>
        <time>2018-12-28T04:42:40Z</time>
      </trkpt>
      <trkpt lat="37.782560" lon="-121.187170">
        <ele>14.221</ele>
        <time>2018-12-28T04:43:00Z</time>
      </trkpt>
      <trkpt lat="37.782600" lon="-121.187190">
        <ele>14.208</ele>
        <time>2018-12-28T04:43:20Z</time>
      </trkpt>
      <trkpt lat="37.782670" lon="-121.187230">
        <ele>14.247</ele>
        <time>2018-12-28T04:43:40Z</time>
      </trkpt>
      <trkpt lat="37.782830" lon="-121.187280">
        <ele>14.265</ele>
        <time>2018-12-28T04:44:00Z</time>
      </trkpt>
      <trkpt lat="37.783620" lon="-121.187510">
        <ele>14.140</ele>
        <time>2018-12-28T04:44:20Z</time>
      </trkpt>
      <trkpt lat="37.784110" lon="-121.187650">
        <ele>14.149</ele>
        <time>2018-12-28T04:44:40Z</time>
      </trkpt>
      <trkpt lat="37.784200" lon="-121.187680">
        <ele>14.163</ele>
        <time>2018-12-28T04:45:00Z</time>
      </trkpt>
      <trkpt lat="37.784240" lon="-121.187690">
        <ele>14.189</ele>
        <time>2018-12-28T04:45:20Z</time>
      </trkpt>
      <trkpt lat="37.784250" lon="-121.187700">
        <ele>14.196</ele>
        <time>2018-12-28T04:45:40Z</time>
      </trkpt>
      <trkpt lat="37.784270" lon="-121.187720">
        <ele>14.170</ele>
        <time>2018-12-28T04:46:00Z</time>
      </trkpt>
      <trkpt lat="37.784290" lon="-121.187730">
        <ele>14.161</ele>
        <time>2018-12-28T04:46:20Z</time>
      </trkpt>
      <trkpt lat="37.784300" lon="-121.187750">
        <ele>14.121</ele>
        <time>2018-12-28T04:46:40Z</time>
      </trkpt>
      <trkpt lat="37.784320" lon="-121.187780">
        <ele>14.113</ele>
        <time>2018-12-28T04:47:00Z</time>
      </trkpt>
      <trkpt lat="37.785560" lon="-121.188100">
        <ele>14.308</ele>
        <time>2018-12-28T04:47:20Z</time>
      </trkpt>
      <trkpt lat="37.785820" lon="-121.188160">
        <ele>14.429</ele>
        <time>2018-12-28T04:47:40Z</time>
      </trkpt>
      <trkpt lat="37.786500" lon="-121.188340">
        <ele>14.747</ele>
        <time>2018-12-28T04:48:00Z</time>
      </trkpt>
      <trkpt lat="37.787000" lon="-121.188470">
        <ele>14.752</ele>
        <time>2018-12-28T04:48:20Z</time>
      </trkpt>
      <trkpt lat="37.787370" lon="-121.188570">
        <ele>14.791</ele>
        <time>2018-12-28T04:48:40Z</time>
      </trkpt>
      <trkpt lat="37.787640" lon="-121.188630">
        <ele>14.745</ele>
        <time>2018-12-28T04:49:00Z</time>
      </trkpt>
      <trkpt lat="37.787900" lon="-121.188700">
        <ele>14.631</ele>
        <time>2018-12-28T04:49:20Z</time>
      </trkpt>
      <trkpt lat="37.788280" lon="-121.188800">
        <ele>14.668</ele>
        <time>2018-12-28T04:49:40Z</time>
      </trkpt>
      <trkpt lat="37.788930" lon="-121.188960">
        <ele>14.412</ele>
        <time>2018-12-28T04:50:00Z</time>
      </trkpt>
      <trkpt lat="37.789960" lon="-121.189230">
        <ele>14.298</ele>
        <time>2018-12-28T04:50:20Z</time>
      </trkpt>
      <trkpt lat="37.791510" lon="-121.189630">
        <ele>13.915</ele>
        <time>2018-12-28T04:50:40Z</time>
      </trkpt>
      <trkpt lat="37.792420" lon="-121.189860">
        <ele>13.926</ele>
        <time>2018-12-28T04:51:00Z</time>
      </trkpt>
      <trkpt lat="37.793340" lon="-121.190090">
        <ele>13.808</ele>
        <time>2018-12-28T04:51:20Z</time>
      </trkpt>
      <trkpt lat="37.794680" lon="-121.190440">
        <ele>13.782</ele>
        <time>2018-12-28T04:51:40Z</time>
      </trkpt>
      <trkpt lat="37.794682" lon="-121.190439">
        <ele>13.730</ele>
        <time>2018-12-28T04:52:00Z</time>
      </trkpt>
      <trkpt lat="37.794710" lon="-121.190410">
        <ele>13.795</ele>
        <time>2018-12-28T04:52:20Z</time>
      </trkpt>
      <trkpt lat="37.794730" lon="-121.190400">
        <ele>13.744</ele>
        <time>2018-12-28T04:52:40Z</time>
      </trkpt>
      <trkpt lat="37.794750" lon="-121.190390">
        <ele>13.768</ele>
        <time>2018-12-28T04:53:00Z</time>
      </trkpt>
      <trkpt lat="37.794770" lon="-121.190380">
        <ele>13.824</ele>
        <time>2018-12-28T04:53:20Z</time>
      </trkpt>
      <trkpt lat="37.794790" lon="-121.190380">
        <ele>13.821</ele>
        <time>2018-12-28T04:53:40Z</time>
      </trkpt>
      <trkpt lat="37.794820" lon="-121.190380">
        <ele>13.875</ele>
        <time>2018-12-28T04:54:00Z</time>
      </trkpt>
      <trkpt lat="37.795360" lon="-121.190460">
        <ele>13.867</ele>
        <time>2018-12-28T04:54:20Z</time>
      </trkpt>
      <trkpt lat="37.795480" lon="-121.190480">
        <ele>13.881</ele>
        <time>2018-12-28T04:54:40Z</time>
      </trkpt>
      <trkpt lat="37.795550" lon="-121.190490">
        <ele>13.819</ele>
        <time>2018-12-28T04:55:00Z</time>
      </trkpt>
      <trkpt lat="37.795630" lon="-121.190500">
        <ele>13.808</ele>
        <time>2018-12-28T04:55:20Z</time>
      </trkpt>
      <trkpt lat="37.795750" lon="-121.190520">
        <ele>13.849</ele>
        <time>2018-12-28T04:55:40Z</time>
      </trkpt>
      <trkpt lat="37.795900" lon="-121.190530">
        <ele>13.837</ele>
        <time>2018-12-28T04:56:00Z</time>
      </trkpt>
      <trkpt lat="37.795980" lon="-121.190530">
        <ele>13.872</ele>
        <time>2018-12-28T04:56:20Z</time>
      </trkpt>
      <trkpt lat="37.796110" lon="-121.190540">
        <ele>13.851</ele>
        <time>2018-12-28T04:56:40Z</time>
      </trkpt>
      <trkpt lat="37.796240" lon="-121.190550">
        <ele>13.935</ele>
        <time>2018-12-28T04:57:00Z</time>
      </trkpt>
      <trkpt lat="37.796330" lon="-121.190550">
        <ele>13.981</ele>
        <time>2018-12-28T04:57:20Z</time>
      </trkpt>
      <trkpt lat="37.796620" lon="-121.190550">
        <ele>13.988</ele>
        <time>2018-12-28T04:57:40Z</time>
      </trkpt>
      <trkpt lat="37.797420" lon="-121.190560">
        <ele>14.012</ele>
        <time>2018-12-28T04:58:00Z</time>
      </trkpt>
      <trkpt lat="37.797420" lon="-121.190560">
        <ele>14.021</ele>
        <time>2018-12-28T04:58:20Z</time>
      </trkpt>
      <trkpt lat="37.797450" lon="-121.190190">
        <ele>14.141</ele>
        <time>2018-12-28T04:58:40Z</time>
      </trkpt>
      <trkpt lat="37.797460" lon="-121.189920">
        <ele>14.105</ele>
        <time>2018-12-28T04:59:00Z</time>
      </trkpt>
      <trkpt lat="37.797470" lon="-121.189890">
        <ele>14.108</ele>
        <time>2018-12-28T04:59:20Z</time>
      </trkpt>
      <trkpt lat="37.797480" lon="-121.189870">
        <ele>14.145</ele>
        <time>2018-12-28T04:59:40Z</time>
      </trkpt>
      <trkpt lat="37.797490" lon="-121.189850">
        <ele>14.123</ele>
        <time>2018-12-28T05:00:00Z</time>
      </trkpt>
      <trkpt lat="37.797550" lon="-121.189770">
        <ele>14.198</ele>
        <time>2018-12-28T05:00:20Z</time>
      </trkpt>
      <trkpt lat="37.797540" lon="-121.189350">
        <ele>14.147</ele>
        <time>2018-12-28T05:00:40Z</time>
      </trkpt>
      <trkpt lat="37.797530" lon="-121.189080">
        <ele>14.191</ele>
        <time>2018-12-28T05:01:00Z</time>
      </trkpt>
      <trkpt lat="37.797530" lon="-121.187660">
        <ele>14.257</ele>
        <time>2018-12-28T05:01:20Z</time>
      </trkpt>
      <trkpt lat="37.797530" lon="-121.186730">
        <ele>14.314</ele>
        <time>2018-12-28T05:01:40Z</time>
      </trkpt>
      <trkpt lat="37.797530" lon="-121.185920">
        <ele>14.428</ele>
        <time>2018-12-28T05:02:00Z</time>
      </trkpt>
      <trkpt lat="37.797540" lon="-121.184310">
        <ele>14.763</ele>
        <time>2018-12-28T05:02:20Z</time>
      </trkpt>
      <trkpt lat="37.797540" lon="-121.183350">
        <ele>15.344</ele>
        <time>2018-12-28T05:02:40Z</time>
      </trkpt>
      <trkpt lat="37.797540" lon="-121.182960">
        <ele>15.618</ele>
        <time>2018-12-28T05:03:00Z</time>
      </trkpt>
      <trkpt lat="37.797540" lon="-121.182880">
        <ele>15.608</ele>
        <time>2018-12-28T05:03:20Z</time>
      </trkpt>
      <trkpt lat="37.797550" lon="-121.180800">
        <ele>15.379</ele>
        <time>2018-12-28T05:03:40Z</time>
      </trkpt>
      <trkpt lat="37.797550" lon="-121.180480">
        <ele>15.347</ele>
        <time>2018-12-28T05:04:00Z</time>
      </trkpt>
      <trkpt lat="37.797550" lon="-121.179890">
        <ele>15.472</ele>
        <time>2018-12-28T05:04:20Z</time>
      </trkpt>
      <trkpt lat="37.797550" lon="-121.177940">
        <ele>15.781</ele>
        <time>2018-12-28T05:04:40Z</time>
      </trkpt>
      <trkpt lat="37.797560" lon="-121.176860">
        <ele>15.735</ele>
        <time>2018-12-28T05:05:00Z</time>
      </trkpt>
      <trkpt lat="37.797570" lon="-121.174600">
        <ele>15.621</ele>
        <time>2018-12-28T05:05:20Z</time>
      </trkpt>
      <trkpt lat="37.797570" lon="-121.173720">
        <ele>15.688</ele>
        <time>2018-12-28T05:05:40Z</time>
      </trkpt>
      <trkpt lat="37.797570" lon="-121.172800">
        <ele>15.852</ele>
        <time>2018-12-28T05:06:00Z</time>
      </trkpt>
      <trkpt lat="37.797570" lon="-121.172030">
        <ele>15.974</ele>
        <time>2018-12-28T05:06:20Z</time>
      </trkpt>
      <trkpt lat="37.797570" lon="-121.171800">
        <ele>15.956</ele>
        <time>2018-12-28T05:06:40Z</time>
      </trkpt>
      <trkpt lat="37.797570" lon="-121.171020">
        <ele>15.921</ele>
        <time>2018-12-28T05:07:00Z</time>
      </trkpt>
      <trkpt lat="37.797560" lon="-121.170630">
        <ele>15.908</ele>
        <time>2018-12-28T05:07:20Z</time>
      </trkpt>
      <trkpt lat="37.797570" lon="-121.169590">
        <ele>16.090</ele>
        <time>2018-12-28T05:07:40Z</time>
      </trkpt>
      <trkpt lat="37.797570" lon="-121.168610">
        <ele>15.968</ele>
        <time>2018-12-28T05:08:00Z</time>
      </trkpt>
      <trkpt lat="37.797570" lon="-121.168210">
        <ele>16.063</ele>
        <time>2018-12-28T05:08:20Z</time>
      </trkpt>
      <trkpt lat="37.797570" lon="-121.167130">
        <ele>16.052</ele>
        <time>2018-12-28T05:08:40Z</time>
      </trkpt>
      <trkpt lat="37.797570" lon="-121.166030">
        <ele>16.056</ele>
        <time>2018-12-28T05:09:00Z</time>
      </trkpt>
      <trkpt lat="37.797580" lon="-121.159440">
        <ele>17.592</ele>
        <time>2018-12-28T05:09:20Z</time>
      </trkpt>
      <trkpt lat="37.797580" lon="-121.157260">
        <ele>17.669</ele>
        <time>2018-12-28T05:09:40Z</time>
      </trkpt>
      <trkpt lat="37.797590" lon="-121.154430">
        <ele>18.053</ele>
        <time>2018-12-28T05:10:00Z</time>
      </trkpt>
      <trkpt lat="37.797600" lon="-121.153310">
        <ele>18.225</ele>
        <time>2018-12-28T05:10:20Z</time>
      </trkpt>
      <trkpt lat="37.797610" lon="-121.152280">
        <ele>18.326</ele>
        <time>2018-12-28T05:10:40Z</time>
      </trkpt>
      <trkpt lat="37.797610" lon="-121.151950">
        <ele>18.308</ele>
        <time>2018-12-28T05:11:00Z</time>
      </trkpt>
      <trkpt lat="37.797620" lon="-121.151620">
        <ele>18.408</ele>
        <time>2018-12-28T05:11:20Z</time>
      </trkpt>
      <trkpt lat="37.797630" lon="-121.150640">
        <ele>18.395</ele>
        <time>2018-12-28T05:11:40Z</time>
      </trkpt>
      <trkpt lat="37.797640" lon="-121.149060">
        <ele>18.153</ele>
        <time>2018-12-28T05:12:00Z</time>
      </trkpt>
      <trkpt lat="37.797640" lon="-121.148780">
        <ele>18.168</ele>
        <time>2018-12-28T05:12:20Z</time>
      </trkpt>
      <trkpt lat="37.797650" lon="-121.147430">
        <ele>17.917</ele>
        <time>2018-12-28T05:12:40Z</time>
      </trkpt>
      <trkpt lat="37.797660" lon="-121.146530">
        <ele>17.811</ele>
        <time>2018-12-28T05:13:00Z</time>
      </trkpt>
      <trkpt lat="37.797660" lon="-121.144800">
        <ele>17.697</ele>
        <time>2018-12-28T05:13:20Z</time>
      </trkpt>
      <trkpt lat="37.797650" lon="-121.143920">
        <ele>17.714</ele>
        <time>2018-12-28T05:13:40Z</time>
      </trkpt>
      <trkpt lat="37.797660" lon="-121.143160">
        <ele>17.728</ele>
        <time>2018-12-28T05:14:00Z</time>
      </trkpt>
      <trkpt lat="37.797650" lon="-121.142400">
        <ele>17.871</ele>
        <time>2018-12-28T05:14:20Z</time>
      </trkpt>
      <trkpt lat="37.797640" lon="-121.139540">
        <ele>18.241</ele>
        <time>2018-12-28T05:14:40Z</time>
      </trkpt>
      <trkpt lat="37.797640" lon="-121.139390">
        <ele>18.215</ele>
        <time>2018-12-28T05:15:00Z</time>
      </trkpt>
      <trkpt lat="37.797630" lon="-121.138240">
        <ele>18.708</ele>
        <time>2018-12-28T05:15:20Z</time>
      </trkpt>
      <trkpt lat="37.797630" lon="-121.138150">
        <ele>18.810</ele>
        <time>2018-12-28T05:15:40Z</time>
      </trkpt>
      <trkpt lat="37.797640" lon="-121.137820">
        <ele>19.028</ele>
        <time>2018-12-28T05:16:00Z</time>
      </trkpt>
      <trkpt lat="37.797660" lon="-121.136170">
        <ele>19.023</ele>
        <time>2018-12-28T05:16:20Z</time>
      </trkpt>
      <trkpt lat="37.797700" lon="-121.134290">
        <ele>19.972</ele>
        <time>2018-12-28T05:16:40Z</time>
      </trkpt>
      <trkpt lat="37.797710" lon="-121.133070">
        <ele>20.436</ele>
        <time>2018-12-28T05:17:00Z</time>
      </trkpt>
      <trkpt lat="37.797720" lon="-121.131440">
        <ele>19.012</ele>
        <time>2018-12-28T05:17:20Z</time>
      </trkpt>
      <trkpt lat="37.797730" lon="-121.130700">
        <ele>18.859</ele>
        <time>2018-12-28T05:17:40Z</time>
      </trkpt>
      <trkpt lat="37.797740" lon="-121.129310">
        <ele>18.713</ele>
        <time>2018-12-28T05:18:00Z</time>
      </trkpt>
      <trkpt lat="37.797750" lon="-121.128790">
        <ele>18.754</ele>
        <time>2018-12-28T05:18:20Z</time>
      </trkpt>
      <trkpt lat="37.797760" lon="-121.127370">
        <ele>19.156</ele>
        <time>2018-12-28T05:18:40Z</time>
      </trkpt>
      <trkpt lat="37.797780" lon="-121.125310">
        <ele>19.411</ele>
        <time>2018-12-28T05:19:00Z</time>
      </trkpt>
      <trkpt lat="37.797790" lon="-121.124360">
        <ele>19.608</ele>
        <time>2018-12-28T05:19:20Z</time>
      </trkpt>
      <trkpt lat="37.797800" lon="-121.123320">
        <ele>19.788</ele>
        <time>2018-12-28T05:19:40Z</time>
      </trkpt>
      <trkpt lat="37.797800" lon="-121.123270">
        <ele>19.866</ele>
        <time>2018-12-28T05:20:00Z</time>
      </trkpt>
      <trkpt lat="37.797810" lon="-121.122170">
        <ele>19.921</ele>
        <time>2018-12-28T05:20:20Z</time>
      </trkpt>
      <trkpt lat="37.797810" lon="-121.122080">
        <ele>19.960</ele>
        <time>2018-12-28T05:20:40Z</time>
      </trkpt>
      <trkpt lat="37.797820" lon="-121.121160">
        <ele>20.054</ele>
        <time>2018-12-28T05:21:00Z</time>
      </trkpt>
      <trkpt lat="37.797830" lon="-121.120610">
        <ele>20.060</ele>
        <time>2018-12-28T05:21:20Z</time>
      </trkpt>
      <trkpt lat="37.797850" lon="-121.117660">
        <ele>20.877</ele>
        <time>2018-12-28T05:21:40Z</time>
      </trkpt>
      <trkpt lat="37.797900" lon="-121.112100">
        <ele>21.581</ele>
        <time>2018-12-28T05:22:00Z</time>
      </trkpt>
      <trkpt lat="37.797910" lon="-121.111380">
        <ele>21.674</ele>
        <time>2018-12-28T05:22:20Z</time>
      </trkpt>
      <trkpt lat="37.797910" lon="-121.110600">
        <ele>21.656</ele>
        <time>2018-12-28T05:22:40Z</time>
      </trkpt>
      <trkpt lat="37.797920" lon="-121.108970">
        <ele>21.821</ele>
        <time>2018-12-28T05:23:00Z</time>
      </trkpt>
      <trkpt lat="37.797930" lon="-121.107780">
        <ele>22.008</ele>
        <time>2018-12-28T05:23:20Z</time>
      </trkpt>
      <trkpt lat="37.797940" lon="-121.107230">
        <ele>22.180</ele>
        <time>2018-12-28T05:23:40Z</time>
      </trkpt>
      <trkpt lat="37.797940" lon="-121.106960">
        <ele>22.158</ele>
        <time>2018-12-28T05:24:00Z</time>
      </trkpt>
      <trkpt lat="37.797940" lon="-121.106620">
        <ele>22.173</ele>
        <time>2018-12-28T05:24:20Z</time>
      </trkpt>
      <trkpt lat="37.797960" lon="-121.105010">
        <ele>21.922</ele>
        <time>2018-12-28T05:24:40Z</time>
      </trkpt>
      <trkpt lat="37.797960" lon="-121.104740">
        <ele>21.916</ele>
        <time>2018-12-28T05:25:00Z</time>
      </trkpt>
      <trkpt lat="37.797970" lon="-121.104330">
        <ele>21.812</ele>
        <time>2018-12-28T05:25:20Z</time>
      </trkpt>
      <trkpt lat="37.797970" lon="-121.103490">
        <ele>21.869</ele>
        <time>2018-12-28T05:25:40Z</time>
      </trkpt>
      <trkpt lat="37.797990" lon="-121.101300">
        <ele>21.953</ele>
        <time>2018-12-28T05:26:00Z</time>
      </trkpt>
      <trkpt lat="37.798000" lon="-121.100260">
        <ele>21.947</ele>
        <time>2018-12-28T05:26:20Z</time>
      </trkpt>
      <trkpt lat="37.798000" lon="-121.100120">
        <ele>21.929</ele>
        <time>2018-12-28T05:26:40Z</time>
      </trkpt>
      <trkpt lat="37.798010" lon="-121.099630">
        <ele>21.921</ele>
        <time>2018-12-28T05:27:00Z</time>
      </trkpt>
      <trkpt lat="37.798010" lon="-121.099290">
        <ele>21.908</ele>
        <time>2018-12-28T05:27:20Z</time>
      </trkpt>
      <trkpt lat="37.798020" lon="-121.099200">
        <ele>21.967</ele>
        <time>2018-12-28T05:27:40Z</time>
      </trkpt>
      <trkpt lat="37.798020" lon="-121.098600">
        <ele>22.035</ele>
        <time>2018-12-28T05:28:00Z</time>
      </trkpt>
      <trkpt lat="37.798020" lon="-121.097860">
        <ele>22.110</ele>
        <time>2018-12-28T05:28:20Z</time>
      </trkpt>
      <trkpt lat="37.798030" lon="-121.097170">
        <ele>22.299</ele>
        <time>2018-12-28T05:28:40Z</time>
      </trkpt>
      <trkpt lat="37.798040" lon="-121.096110">
        <ele>22.373</ele>
        <time>2018-12-28T05:29:00Z</time>
      </trkpt>
      <trkpt lat="37.798050" lon="-121.095530">
        <ele>22.399</ele>
        <time>2018-12-28T05:29:20Z</time>
      </trkpt>
      <trkpt lat="37.798080" lon="-121.092550">
        <ele>22.726</ele>
        <time>2018-12-28T05:29:40Z</time>
      </trkpt>
      <trkpt lat="37.798080" lon="-121.092480">
        <ele>22.770</ele>
        <time>2018-12-28T05:30:00Z</time>
      </trkpt>
      <trkpt lat="37.798080" lon="-121.092440">
        <ele>22.727</ele>
        <time>2018-12-28T05:30:20Z</time>
      </trkpt>
      <trkpt lat="37.798080" lon="-121.092340">
        <ele>22.768</ele>
        <time>2018-12-28T05:30:40Z</time>
      </trkpt>
      <trkpt lat="37.798080" lon="-121.092170">
        <ele>22.714</ele>
        <time>2018-12-28T05:31:00Z</time>
      </trkpt>
      <trkpt lat="37.798090" lon="-121.091720">
        <ele>22.708</ele>
        <time>2018-12-28T05:31:20Z</time>
      </trkpt>
      <trkpt lat="37.798090" lon="-121.091480">
        <ele>22.895</ele>
        <time>2018-12-28T05:31:40Z</time>
      </trkpt>
      <trkpt lat="37.798110" lon="-121.090040">
        <ele>22.943</ele>
        <time>2018-12-28T05:32:00Z</time>
      </trkpt>
      <trkpt lat="37.798110" lon="-121.090020">
        <ele>22.988</ele>
        <time>2018-12-28T05:32:20Z</time>
      </trkpt>
      <trkpt lat="37.798120" lon="-121.089370">
        <ele>23.067</ele>
        <time>2018-12-28T05:32:40Z</time>
      </trkpt>
      <trkpt lat="37.798120" lon="-121.088690">
        <ele>23.111</ele>
        <time>2018-12-28T05:33:00Z</time>
      </trkpt>
      <trkpt lat="37.798130" lon="-121.088040">
        <ele>23.117</ele>
        <time>2018-12-28T05:33:20Z</time>
      </trkpt>
      <trkpt lat="37.798140" lon="-121.086710">
        <ele>23.314</ele>
        <time>2018-12-28T05:33:40Z</time>
      </trkpt>
      <trkpt lat="37.798140" lon="-121.086660">
        <ele>23.398</ele>
        <time>2018-12-28T05:34:00Z</time>
      </trkpt>
      <trkpt lat="37.798150" lon="-121.085590">
        <ele>23.461</ele>
        <time>2018-12-28T05:34:20Z</time>
      </trkpt>
      <trkpt lat="37.798160" lon="-121.082950">
        <ele>23.821</ele>
        <time>2018-12-28T05:34:40Z</time>
      </trkpt>
      <trkpt lat="37.798180" lon="-121.079370">
        <ele>24.313</ele>
        <time>2018-12-28T05:35:00Z</time>
      </trkpt>
      <trkpt lat="37.798190" lon="-121.078990">
        <ele>24.408</ele>
        <time>2018-12-28T05:35:20Z</time>
      </trkpt>
      <trkpt lat="37.798230" lon="-121.074960">
        <ele>25.169</ele>
        <time>2018-12-28T05:35:40Z</time>
      </trkpt>
      <trkpt lat="37.798250" lon="-121.074210">
        <ele>25.297</ele>
        <time>2018-12-28T05:36:00Z</time>
      </trkpt>
      <trkpt lat="37.798260" lon="-121.073740">
        <ele>25.222</ele>
        <time>2018-12-28T05:36:20Z</time>
      </trkpt>
      <trkpt lat="37.798260" lon="-121.073450">
        <ele>25.211</ele>
        <time>2018-12-28T05:36:40Z</time>
      </trkpt>
      <trkpt lat="37.798270" lon="-121.072370">
        <ele>25.365</ele>
        <time>2018-12-28T05:37:00Z</time>
      </trkpt>
      <trkpt lat="37.798270" lon="-121.071990">
        <ele>25.461</ele>
        <time>2018-12-28T05:37:20Z</time>
      </trkpt>
      <trkpt lat="37.798270" lon="-121.071890">
        <ele>25.428</ele>
        <time>2018-12-28T05:37:40Z</time>
      </trkpt>
      <trkpt lat="37.798290" lon="-121.070380">
        <ele>25.612</ele>
        <time>2018-12-28T05:38:00Z</time>
      </trkpt>
      <trkpt lat="37.798300" lon="-121.068990">
        <ele>25.789</ele>
        <time>2018-12-28T05:38:20Z</time>
      </trkpt>
      <trkpt lat="37.798310" lon="-121.067980">
        <ele>25.806</ele>
        <time>2018-12-28T05:38:40Z</time>
      </trkpt>
      <trkpt lat="37.798320" lon="-121.067090">
        <ele>25.926</ele>
        <time>2018-12-28T05:39:00Z</time>
      </trkpt>
      <trkpt lat="37.798330" lon="-121.065820">
        <ele>26.008</ele>
        <time>2018-12-28T05:39:20Z</time>
      </trkpt>
      <trkpt lat="37.798340" lon="-121.065310">
        <ele>26.191</ele>
        <time>2018-12-28T05:39:40Z</time>
      </trkpt>
      <trkpt lat="37.798360" lon="-121.062630">
        <ele>26.419</ele>
        <time>2018-12-28T05:40:00Z</time>
      </trkpt>
      <trkpt lat="37.798360" lon="-121.062030">
        <ele>26.494</ele>
        <time>2018-12-28T05:40:20Z</time>
      </trkpt>
      <trkpt lat="37.798370" lon="-121.061260">
        <ele>26.513</ele>
        <time>2018-12-28T05:40:40Z</time>
      </trkpt>
      <trkpt lat="37.798380" lon="-121.060870">
        <ele>26.657</ele>
        <time>2018-12-28T05:41:00Z</time>
      </trkpt>
      <trkpt lat="37.798390" lon="-121.060060">
        <ele>26.733</ele>
        <time>2018-12-28T05:41:20Z</time>
      </trkpt>
      <trkpt lat="37.798400" lon="-121.059120">
        <ele>26.880</ele>
        <time>2018-12-28T05:41:40Z</time>
      </trkpt>
      <trkpt lat="37.798420" lon="-121.058060">
        <ele>26.964</ele>
        <time>2018-12-28T05:42:00Z</time>
      </trkpt>
      <trkpt lat="37.798420" lon="-121.057360">
        <ele>27.025</ele>
        <time>2018-12-28T05:42:20Z</time>
      </trkpt>
      <trkpt lat="37.798440" lon="-121.056200">
        <ele>27.126</ele>
        <time>2018-12-28T05:42:40Z</time>
      </trkpt>
      <trkpt lat="37.798450" lon="-121.055330">
        <ele>27.208</ele>
        <time>2018-12-28T05:43:00Z</time>
      </trkpt>
      <trkpt lat="37.798460" lon="-121.054660">
        <ele>27.308</ele>
        <time>2018-12-28T05:43:20Z</time>
      </trkpt>
      <trkpt lat="37.798460" lon="-121.054410">
        <ele>27.315</ele>
        <time>2018-12-28T05:43:40Z</time>
      </trkpt>
      <trkpt lat="37.798470" lon="-121.054110">
        <ele>27.353</ele>
        <time>2018-12-28T05:44:00Z</time>
      </trkpt>
      <trkpt lat="37.798480" lon="-121.053360">
        <ele>27.458</ele>
        <time>2018-12-28T05:44:20Z</time>
      </trkpt>
      <trkpt lat="37.798500" lon="-121.052070">
        <ele>27.627</ele>
        <time>2018-12-28T05:44:40Z</time>
      </trkpt>
      <trkpt lat="37.798520" lon="-121.050020">
        <ele>27.961</ele>
        <time>2018-12-28T05:45:00Z</time>
      </trkpt>
      <trkpt lat="37.798520" lon="-121.049790">
        <ele>27.997</ele>
        <time>2018-12-28T05:45:20Z</time>
      </trkpt>
      <trkpt lat="37.798520" lon="-121.049650">
        <ele>27.974</ele>
        <time>2018-12-28T05:45:40Z</time>
      </trkpt>
      <trkpt lat="37.798530" lon="-121.049190">
        <ele>27.998</ele>
        <time>2018-12-28T05:46:00Z</time>
      </trkpt>
      <trkpt lat="37.798530" lon="-121.048210">
        <ele>28.138</ele>
        <time>2018-12-28T05:46:20Z</time>
      </trkpt>
      <trkpt lat="37.798530" lon="-121.047440">
        <ele>28.170</ele>
        <time>2018-12-28T05:46:40Z</time>
      </trkpt>
      <trkpt lat="37.798530" lon="-121.046610">
        <ele>28.317</ele>
        <time>2018-12-28T05:47:00Z</time>
      </trkpt>
      <trkpt lat="37.798540" lon="-121.045040">
        <ele>28.608</ele>
        <time>2018-12-28T05:47:20Z</time>
      </trkpt>
      <trkpt lat="37.798560" lon="-121.042900">
        <ele>29.216</ele>
        <time>2018-12-28T05:47:40Z</time>
      </trkpt>
      <trkpt lat="37.798570" lon="-121.041740">
        <ele>29.524</ele>
        <time>2018-12-28T05:48:00Z</time>
      </trkpt>
      <trkpt lat="37.798570" lon="-121.041700">
        <ele>29.539</ele>
        <time>2018-12-28T05:48:20Z</time>
      </trkpt>
      <trkpt lat="37.798600" lon="-121.038330">
        <ele>30.068</ele>
        <time>2018-12-28T05:48:40Z</time>
      </trkpt>
      <trkpt lat="37.798610" lon="-121.037750">
        <ele>30.152</ele>
        <time>2018-12-28T05:49:00Z</time>
      </trkpt>
      <trkpt lat="37.798610" lon="-121.037250">
        <ele>30.158</ele>
        <time>2018-12-28T05:49:20Z</time>
      </trkpt>
      <trkpt lat="37.798620" lon="-121.036580">
        <ele>30.245</ele>
        <time>2018-12-28T05:49:40Z</time>
      </trkpt>
      <trkpt lat="37.798620" lon="-121.036100">
        <ele>30.319</ele>
        <time>2018-12-28T05:50:00Z</time>
      </trkpt>
      <trkpt lat="37.798630" lon="-121.035820">
        <ele>30.358</ele>
        <time>2018-12-28T05:50:20Z</time>
      </trkpt>
      <trkpt lat="37.798640" lon="-121.035150">
        <ele>30.452</ele>
        <time>2018-12-28T05:50:40Z</time>
      </trkpt>
      <trkpt lat="37.798640" lon="-121.035040">
        <ele>30.417</ele>
        <time>2018-12-28T05:51:00Z</time>
      </trkpt>
      <trkpt lat="37.798640" lon="-121.033770">
        <ele>30.608</ele>
        <time>2018-12-28T05:51:20Z</time>
      </trkpt>
      <trkpt lat="37.798630" lon="-121.031760">
        <ele>30.988</ele>
        <time>2018-12-28T05:51:40Z</time>
      </trkpt>
      <trkpt lat="37.798630" lon="-121.031360">
        <ele>30.926</ele>
        <time>2018-12-28T05:52:00Z</time>
      </trkpt>
      <trkpt lat="37.798630" lon="-121.031190">
        <ele>31.071</ele>
        <time>2018-12-28T05:52:20Z</time>
      </trkpt>
      <trkpt lat="37.798620" lon="-121.030560">
        <ele>31.140</ele>
        <time>2018-12-28T05:52:40Z</time>
      </trkpt>
      <trkpt lat="37.798620" lon="-121.030500">
        <ele>31.154</ele>
        <time>2018-12-28T05:53:00Z</time>
      </trkpt>
      <trkpt lat="37.798620" lon="-121.029630">
        <ele>31.280</ele>
        <time>2018-12-28T05:53:20Z</time>
      </trkpt>
      <trkpt lat="37.798610" lon="-121.029010">
        <ele>31.337</ele>
        <time>2018-12-28T05:53:40Z</time>
      </trkpt>
      <trkpt lat="37.798610" lon="-121.028890">
        <ele>31.331</ele>
        <time>2018-12-28T05:54:00Z</time>
      </trkpt>
      <trkpt lat="37.798570" lon="-121.021930">
        <ele>32.543</ele>
        <time>2018-12-28T05:54:20Z</time>
      </trkpt>
      <trkpt lat="37.798560" lon="-121.016270">
        <ele>33.164</ele>
        <time>2018-12-28T05:54:40Z</time>
      </trkpt>
      <trkpt lat="37.798550" lon="-121.015710">
        <ele>33.210</ele>
        <time>2018-12-28T05:55:00Z</time>
      </trkpt>
      <trkpt lat="37.798550" lon="-121.015320">
        <ele>33.208</ele>
        <time>2018-12-28T05:55:20Z</time>
      </trkpt>
      <trkpt lat="37.798550" lon="-121.014970">
        <ele>33.347</ele>
        <time>2018-12-28T05:55:40Z</time>
      </trkpt>
      <trkpt lat="37.798560" lon="-121.014520">
        <ele>33.335</ele>
        <time>2018-12-28T05:56:00Z</time>
      </trkpt>
      <trkpt lat="37.798570" lon="-121.014130">
        <ele>33.430</ele>
        <time>2018-12-28T05:56:20Z</time>
      </trkpt>
      <trkpt lat="37.798570" lon="-121.014000">
        <ele>33.429</ele>
        <time>2018-12-28T05:56:40Z</time>
      </trkpt>
      <trkpt lat="37.798590" lon="-121.013380">
        <ele>33.483</ele>
        <time>2018-12-28T05:57:00Z</time>
      </trkpt>
      <trkpt lat="37.798590" lon="-121.013020">
        <ele>33.559</ele>
        <time>2018-12-28T05:57:20Z</time>
      </trkpt>
      <trkpt lat="37.798590" lon="-121.012660">
        <ele>33.566</ele>
        <time>2018-12-28T05:57:40Z</time>
      </trkpt>
      <trkpt lat="37.798590" lon="-121.011860">
        <ele>33.630</ele>
        <time>2018-12-28T05:58:00Z</time>
      </trkpt>
      <trkpt lat="37.798590" lon="-121.011010">
        <ele>33.733</ele>
        <time>2018-12-28T05:58:20Z</time>
      </trkpt>
      <trkpt lat="37.798590" lon="-121.010230">
        <ele>33.723</ele>
        <time>2018-12-28T05:58:40Z</time>
      </trkpt>
      <trkpt lat="37.798580" lon="-121.009390">
        <ele>33.815</ele>
        <time>2018-12-28T05:59:00Z</time>
      </trkpt>
      <trkpt lat="37.798580" lon="-121.008980">
        <ele>33.908</ele>
        <time>2018-12-28T05:59:20Z</time>
      </trkpt>
      <trkpt lat="37.798580" lon="-121.007810">
        <ele>34.086</ele>
        <time>2018-12-28T05:59:40Z</time>
      </trkpt>
      <trkpt lat="37.798580" lon="-121.007340">
        <ele>34.054</ele>
        <time>2018-12-28T06:00:00Z</time>
      </trkpt>
      <trkpt lat="37.798580" lon="-121.007220">
        <ele>34.049</ele>
        <time>2018-12-28T06:00:20Z</time>
      </trkpt>
      <trkpt lat="37.798560" lon="-121.007140">
        <ele>34.058</ele>
        <time>2018-12-28T06:00:40Z</time>
      </trkpt>
      <trkpt lat="37.798560" lon="-121.006910">
        <ele>34.012</ele>
        <time>2018-12-28T06:01:00Z</time>
      </trkpt>
      <trkpt lat="37.798550" lon="-121.006690">
        <ele>34.178</ele>
        <time>2018-12-28T06:01:20Z</time>
      </trkpt>
      <trkpt lat="37.798550" lon="-121.006330">
        <ele>34.145</ele>
        <time>2018-12-28T06:01:40Z</time>
      </trkpt>
      <trkpt lat="37.798540" lon="-121.005800">
        <ele>34.159</ele>
        <time>2018-12-28T06:02:00Z</time>
      </trkpt>
      <trkpt lat="37.798540" lon="-121.005610">
        <ele>34.281</ele>
        <time>2018-12-28T06:02:20Z</time>
      </trkpt>
      <trkpt lat="37.798540" lon="-121.005450">
        <ele>34.261</ele>
        <time>2018-12-28T06:02:40Z</time>
      </trkpt>
      <trkpt lat="37.798540" lon="-121.005080">
        <ele>34.217</ele>
        <time>2018-12-28T06:03:00Z</time>
      </trkpt>
      <trkpt lat="37.798540" lon="-121.004780">
        <ele>34.208</ele>
        <time>2018-12-28T06:03:20Z</time>
      </trkpt>
      <trkpt lat="37.798540" lon="-121.004440">
        <ele>34.321</ele>
        <time>2018-12-28T06:03:40Z</time>
      </trkpt>
      <trkpt lat="37.798530" lon="-121.004200">
        <ele>34.379</ele>
        <time>2018-12-28T06:04:00Z</time>
      </trkpt>
      <trkpt lat="37.798530" lon="-121.004060">
        <ele>34.334</ele>
        <time>2018-12-28T06:04:20Z</time>
      </trkpt>
      <trkpt lat="37.798540" lon="-121.003800">
        <ele>34.393</ele>
        <time>2018-12-28T06:04:40Z</time>
      </trkpt>
      <trkpt lat="37.798540" lon="-121.003500">
        <ele>34.337</ele>
        <time>2018-12-28T06:05:00Z</time>
      </trkpt>
      <trkpt lat="37.798540" lon="-121.003420">
        <ele>34.333</ele>
        <time>2018-12-28T06:05:20Z</time>
      </trkpt>
      <trkpt lat="37.798540" lon="-121.003200">
        <ele>34.370</ele>
        <time>2018-12-28T06:05:40Z</time>
      </trkpt>
      <trkpt lat="37.798540" lon="-121.002870">
        <ele>34.494</ele>
        <time>2018-12-28T06:06:00Z</time>
      </trkpt>
      <trkpt lat="37.798540" lon="-121.002700">
        <ele>34.539</ele>
        <time>2018-12-28T06:06:20Z</time>
      </trkpt>
      <trkpt lat="37.798540" lon="-121.002570">
        <ele>34.601</ele>
        <time>2018-12-28T06:06:40Z</time>
      </trkpt>
      <trkpt lat="37.798540" lon="-121.002490">
        <ele>34.621</ele>
        <time>2018-12-28T06:07:00Z</time>
      </trkpt>
      <trkpt lat="37.798530" lon="-121.002120">
        <ele>34.908</ele>
        <time>2018-12-28T06:07:20Z</time>
      </trkpt>
      <trkpt lat="37.798530" lon="-121.001730">
        <ele>35.296</ele>
        <time>2018-12-28T06:07:40Z</time>
      </trkpt>
      <trkpt lat="37.798530" lon="-121.001120">
        <ele>35.594</ele>
        <time>2018-12-28T06:08:00Z</time>
      </trkpt>
      <trkpt lat="37.798520" lon="-121.000750">
        <ele>35.669</ele>
        <time>2018-12-28T06:08:20Z</time>
      </trkpt>
      <trkpt lat="37.798520" lon="-121.000560">
        <ele>35.658</ele>
        <time>2018-12-28T06:08:40Z</time>
      </trkpt>
      <trkpt lat="37.798520" lon="-121.000330">
        <ele>35.642</ele>
        <time>2018-12-28T06:09:00Z</time>
      </trkpt>
      <trkpt lat="37.798520" lon="-121.000120">
        <ele>35.748</ele>
        <time>2018-12-28T06:09:20Z</time>
      </trkpt>
      <trkpt lat="37.798560" lon="-121.000010">
        <ele>35.765</ele>
        <time>2018-12-28T06:09:40Z</time>
      </trkpt>
      <trkpt lat="37.798560" lon="-120.999660">
        <ele>35.889</ele>
        <time>2018-12-28T06:10:00Z</time>
      </trkpt>
      <trkpt lat="37.798550" lon="-120.999430">
        <ele>35.851</ele>
        <time>2018-12-28T06:10:20Z</time>
      </trkpt>
      <trkpt lat="37.798510" lon="-120.999300">
        <ele>35.801</ele>
        <time>2018-12-28T06:10:40Z</time>
      </trkpt>
      <trkpt lat="37.798510" lon="-120.999210">
        <ele>35.811</ele>
        <time>2018-12-28T06:11:00Z</time>
      </trkpt>
      <trkpt lat="37.798510" lon="-120.999120">
        <ele>35.908</ele>
        <time>2018-12-28T06:11:20Z</time>
      </trkpt>
      <trkpt lat="37.798510" lon="-120.999030">
        <ele>35.978</ele>
        <time>2018-12-28T06:11:40Z</time>
      </trkpt>
      <trkpt lat="37.798500" lon="-120.998970">
        <ele>35.936</ele>
        <time>2018-12-28T06:12:00Z</time>
      </trkpt>
      <trkpt lat="37.798490" lon="-120.998860">
        <ele>35.921</ele>
        <time>2018-12-28T06:12:20Z</time>
      </trkpt>
      <trkpt lat="37.798470" lon="-120.998780">
        <ele>35.930</ele>
        <time>2018-12-28T06:12:40Z</time>
      </trkpt>
      <trkpt lat="37.798470" lon="-120.998760">
        <ele>35.974</ele>
        <time>2018-12-28T06:13:00Z</time>
      </trkpt>
      <trkpt lat="37.798460" lon="-120.998710">
        <ele>35.930</ele>
        <time>2018-12-28T06:13:20Z</time>
      </trkpt>
      <trkpt lat="37.798420" lon="-120.998600">
        <ele>35.987</ele>
        <time>2018-12-28T06:13:40Z</time>
      </trkpt>
      <trkpt lat="37.798410" lon="-120.998560">
        <ele>35.971</ele>
        <time>2018-12-28T06:14:00Z</time>
      </trkpt>
      <trkpt lat="37.798370" lon="-120.998470">
        <ele>35.971</ele>
        <time>2018-12-28T06:14:20Z</time>
      </trkpt>
      <trkpt lat="37.798330" lon="-120.998380">
        <ele>35.941</ele>
        <time>2018-12-28T06:14:40Z</time>
      </trkpt>
      <trkpt lat="37.798260" lon="-120.998250">
        <ele>36.015</ele>
        <time>2018-12-28T06:15:00Z</time>
      </trkpt>
      <trkpt lat="37.798180" lon="-120.998130">
        <ele>36.008</ele>
        <time>2018-12-28T06:15:20Z</time>
      </trkpt>
      <trkpt lat="37.798080" lon="-120.998000">
        <ele>36.010</ele>
        <time>2018-12-28T06:15:40Z</time>
      </trkpt>
      <trkpt lat="37.797990" lon="-120.997880">
        <ele>36.098</ele>
        <time>2018-12-28T06:16:00Z</time>
      </trkpt>
      <trkpt lat="37.797890" lon="-120.997740">
        <ele>36.043</ele>
        <time>2018-12-28T06:16:20Z</time>
      </trkpt>
      <trkpt lat="37.797780" lon="-120.997570">
        <ele>36.022</ele>
        <time>2018-12-28T06:16:40Z</time>
      </trkpt>
      <trkpt lat="37.797770" lon="-120.997440">
        <ele>36.096</ele>
        <time>2018-12-28T06:17:00Z</time>
      </trkpt>
      <trkpt lat="37.797690" lon="-120.997340">
        <ele>36.062</ele>
        <time>2018-12-28T06:17:20Z</time>
      </trkpt>
      <trkpt lat="37.797630" lon="-120.997240">
        <ele>36.059</ele>
        <time>2018-12-28T06:17:40Z</time>
      </trkpt>
      <trkpt lat="37.797420" lon="-120.996870">
        <ele>36.183</ele>
        <time>2018-12-28T06:18:00Z</time>
      </trkpt>
      <trkpt lat="37.797340" lon="-120.996730">
        <ele>36.173</ele>
        <time>2018-12-28T06:18:20Z</time>
      </trkpt>
      <trkpt lat="37.797260" lon="-120.996540">
        <ele>36.185</ele>
        <time>2018-12-28T06:18:40Z</time>
      </trkpt>
      <trkpt lat="37.797180" lon="-120.996380">
        <ele>36.113</ele>
        <time>2018-12-28T06:19:00Z</time>
      </trkpt>
      <trkpt lat="37.797150" lon="-120.996310">
        <ele>36.108</ele>
        <time>2018-12-28T06:19:20Z</time>
      </trkpt>
      <trkpt lat="37.796990" lon="-120.996010">
        <ele>36.070</ele>
        <time>2018-12-28T06:19:40Z</time>
      </trkpt>
      <trkpt lat="37.796810" lon="-120.995570">
        <ele>36.038</ele>
        <time>2018-12-28T06:20:00Z</time>
      </trkpt>
      <trkpt lat="37.796720" lon="-120.995310">
        <ele>36.083</ele>
        <time>2018-12-28T06:20:20Z</time>
      </trkpt>
      <trkpt lat="37.796690" lon="-120.995150">
        <ele>36.162</ele>
        <time>2018-12-28T06:20:40Z</time>
      </trkpt>
      <trkpt lat="37.796670" lon="-120.995010">
        <ele>36.166</ele>
        <time>2018-12-28T06:21:00Z</time>
      </trkpt>
      <trkpt lat="37.796660" lon="-120.994840">
        <ele>36.142</ele>
        <time>2018-12-28T06:21:20Z</time>
      </trkpt>
      <trkpt lat="37.796660" lon="-120.994550">
        <ele>36.239</ele>
        <time>2018-12-28T06:21:40Z</time>
      </trkpt>
      <trkpt lat="37.796630" lon="-120.993530">
        <ele>36.413</ele>
        <time>2018-12-28T06:22:00Z</time>
      </trkpt>
      <trkpt lat="37.796630" lon="-120.992840">
        <ele>36.642</ele>
        <time>2018-12-28T06:22:20Z</time>
      </trkpt>
      <trkpt lat="37.796610" lon="-120.992590">
        <ele>36.722</ele>
        <time>2018-12-28T06:22:40Z</time>
      </trkpt>
      <trkpt lat="37.796560" lon="-120.992440">
        <ele>36.714</ele>
        <time>2018-12-28T06:23:00Z</time>
      </trkpt>
      <trkpt lat="37.796530" lon="-120.992360">
        <ele>36.708</ele>
        <time>2018-12-28T06:23:20Z</time>
      </trkpt>
      <trkpt lat="37.796460" lon="-120.992220">
        <ele>36.887</ele>
        <time>2018-12-28T06:23:40Z</time>
      </trkpt>
      <trkpt lat="37.795590" lon="-120.991050">
        <ele>37.045</ele>
        <time>2018-12-28T06:24:00Z</time>
      </trkpt>
      <trkpt lat="37.794700" lon="-120.989920">
        <ele>37.270</ele>
        <time>2018-12-28T06:24:20Z</time>
      </trkpt>
      <trkpt lat="37.794470" lon="-120.989610">
        <ele>37.399</ele>
        <time>2018-12-28T06:24:40Z</time>
      </trkpt>
      <trkpt lat="37.794370" lon="-120.989420">
        <ele>37.383</ele>
        <time>2018-12-28T06:25:00Z</time>
      </trkpt>
      <trkpt lat="37.794320" lon="-120.989260">
        <ele>37.289</ele>
        <time>2018-12-28T06:25:20Z</time>
      </trkpt>
      <trkpt lat="37.794280" lon="-120.989110">
        <ele>37.256</ele>
        <time>2018-12-28T06:25:40Z</time>
      </trkpt>
      <trkpt lat="37.794270" lon="-120.988970">
        <ele>37.140</ele>
        <time>2018-12-28T06:26:00Z</time>
      </trkpt>
      <trkpt lat="37.794270" lon="-120.987430">
        <ele>37.197</ele>
        <time>2018-12-28T06:26:20Z</time>
      </trkpt>
      <trkpt lat="37.794260" lon="-120.985870">
        <ele>37.323</ele>
        <time>2018-12-28T06:26:40Z</time>
      </trkpt>
      <trkpt lat="37.794250" lon="-120.985290">
        <ele>37.425</ele>
        <time>2018-12-28T06:27:00Z</time>
      </trkpt>
      <trkpt lat="37.794250" lon="-120.984920">
        <ele>37.408</ele>
        <time>2018-12-28T06:27:20Z</time>
      </trkpt>
      <trkpt lat="37.794220" lon="-120.984050">
        <ele>37.582</ele>
        <time>2018-12-28T06:27:40Z</time>
      </trkpt>
      <trkpt lat="37.794220" lon="-120.982680">
        <ele>37.650</ele>
        <time>2018-12-28T06:28:00Z</time>
      </trkpt>
      <trkpt lat="37.794200" lon="-120.979900">
        <ele>38.025</ele>
        <time>2018-12-28T06:28:20Z</time>
      </trkpt>
      <trkpt lat="37.794200" lon="-120.979590">
        <ele>38.054</ele>
        <time>2018-12-28T06:28:40Z</time>
      </trkpt>
      <trkpt lat="37.794190" lon="-120.978700">
        <ele>38.148</ele>
        <time>2018-12-28T06:29:00Z</time>
      </trkpt>
      <trkpt lat="37.794200" lon="-120.978360">
        <ele>38.294</ele>
        <time>2018-12-28T06:29:20Z</time>
      </trkpt>
      <trkpt lat="37.794200" lon="-120.978010">
        <ele>38.281</ele>
        <time>2018-12-28T06:29:40Z</time>
      </trkpt>
      <trkpt lat="37.794190" lon="-120.977550">
        <ele>38.385</ele>
        <time>2018-12-28T06:30:00Z</time>
      </trkpt>
      <trkpt lat="37.794180" lon="-120.976930">
        <ele>38.492</ele>
        <time>2018-12-28T06:30:20Z</time>
      </trkpt>
      <trkpt lat="37.794170" lon="-120.975940">
        <ele>38.573</ele>
        <time>2018-12-28T06:30:40Z</time>
      </trkpt>
      <trkpt lat="37.794140" lon="-120.973700">
        <ele>38.820</ele>
        <time>2018-12-28T06:31:00Z</time>
      </trkpt>
      <trkpt lat="37.794100" lon="-120.969540">
        <ele>38.908</ele>
        <time>2018-12-28T06:31:20Z</time>
      </trkpt>
      <trkpt lat="37.794100" lon="-120.969100">
        <ele>38.912</ele>
        <time>2018-12-28T06:31:40Z</time>
      </trkpt>
      <trkpt lat="37.794100" lon="-120.968510">
        <ele>38.920</ele>
        <time>2018-12-28T06:32:00Z</time>
      </trkpt>
      <trkpt lat="37.794100" lon="-120.968240">
        <ele>38.945</ele>
        <time>2018-12-28T06:32:20Z</time>
      </trkpt>
      <trkpt lat="37.794040" lon="-120.961970">
        <ele>40.654</ele>
        <time>2018-12-28T06:32:40Z</time>
      </trkpt>
      <trkpt lat="37.794010" lon="-120.960290">
        <ele>41.328</ele>
        <time>2018-12-28T06:33:00Z</time>
      </trkpt>
      <trkpt lat="37.793990" lon="-120.959900">
        <ele>41.484</ele>
        <time>2018-12-28T06:33:20Z</time>
      </trkpt>
      <trkpt lat="37.793970" lon="-120.958240">
        <ele>41.551</ele>
        <time>2018-12-28T06:33:40Z</time>
      </trkpt>
      <trkpt lat="37.793900" lon="-120.952750">
        <ele>42.385</ele>
        <time>2018-12-28T06:34:00Z</time>
      </trkpt>
      <trkpt lat="37.793870" lon="-120.950770">
        <ele>42.848</ele>
        <time>2018-12-28T06:34:20Z</time>
      </trkpt>
      <trkpt lat="37.793860" lon="-120.949090">
        <ele>43.261</ele>
        <time>2018-12-28T06:34:40Z</time>
      </trkpt>
      <trkpt lat="37.793850" lon="-120.947700">
        <ele>43.417</ele>
        <time>2018-12-28T06:35:00Z</time>
      </trkpt>
      <trkpt lat="37.793830" lon="-120.946280">
        <ele>43.608</ele>
        <time>2018-12-28T06:35:20Z</time>
      </trkpt>
      <trkpt lat="37.793790" lon="-120.942980">
        <ele>44.387</ele>
        <time>2018-12-28T06:35:40Z</time>
      </trkpt>
      <trkpt lat="37.793780" lon="-120.942460">
        <ele>44.465</ele>
        <time>2018-12-28T06:36:00Z</time>
      </trkpt>
      <trkpt lat="37.793780" lon="-120.941650">
        <ele>44.720</ele>
        <time>2018-12-28T06:36:20Z</time>
      </trkpt>
      <trkpt lat="37.793760" lon="-120.940320">
        <ele>44.949</ele>
        <time>2018-12-28T06:36:40Z</time>
      </trkpt>
      <trkpt lat="37.793730" lon="-120.938310">
        <ele>45.263</ele>
        <time>2018-12-28T06:37:00Z</time>
      </trkpt>
      <trkpt lat="37.793730" lon="-120.937440">
        <ele>45.349</ele>
        <time>2018-12-28T06:37:20Z</time>
      </trkpt>
      <trkpt lat="37.793730" lon="-120.937040">
        <ele>45.476</ele>
        <time>2018-12-28T06:37:40Z</time>
      </trkpt>
      <trkpt lat="37.793720" lon="-120.936730">
        <ele>45.580</ele>
        <time>2018-12-28T06:38:00Z</time>
      </trkpt>
      <trkpt lat="37.793690" lon="-120.933020">
        <ele>46.335</ele>
        <time>2018-12-28T06:38:20Z</time>
      </trkpt>
      <trkpt lat="37.793680" lon="-120.932490">
        <ele>46.386</ele>
        <time>2018-12-28T06:38:40Z</time>
      </trkpt>
      <trkpt lat="37.793680" lon="-120.931900">
        <ele>46.414</ele>
        <time>2018-12-28T06:39:00Z</time>
      </trkpt>
      <trkpt lat="37.793650" lon="-120.929620">
        <ele>46.608</ele>
        <time>2018-12-28T06:39:20Z</time>
      </trkpt>
      <trkpt lat="37.793560" lon="-120.923670">
        <ele>46.656</ele>
        <time>2018-12-28T06:39:40Z</time>
      </trkpt>
      <trkpt lat="37.793570" lon="-120.923280">
        <ele>46.744</ele>
        <time>2018-12-28T06:40:00Z</time>
      </trkpt>
      <trkpt lat="37.793560" lon="-120.922930">
        <ele>46.789</ele>
        <time>2018-12-28T06:40:20Z</time>
      </trkpt>
      <trkpt lat="37.793540" lon="-120.921750">
        <ele>47.048</ele>
        <time>2018-12-28T06:40:40Z</time>
      </trkpt>
      <trkpt lat="37.793540" lon="-120.921070">
        <ele>47.222</ele>
        <time>2018-12-28T06:41:00Z</time>
      </trkpt>
      <trkpt lat="37.793520" lon="-120.920690">
        <ele>47.458</ele>
        <time>2018-12-28T06:41:20Z</time>
      </trkpt>
      <trkpt lat="37.793490" lon="-120.920270">
        <ele>47.775</ele>
        <time>2018-12-28T06:41:40Z</time>
      </trkpt>
      <trkpt lat="37.793440" lon="-120.919610">
        <ele>48.099</ele>
        <time>2018-12-28T06:42:00Z</time>
      </trkpt>
      <trkpt lat="37.793390" lon="-120.918830">
        <ele>48.026</ele>
        <time>2018-12-28T06:42:20Z</time>
      </trkpt>
      <trkpt lat="37.793370" lon="-120.918490">
        <ele>48.047</ele>
        <time>2018-12-28T06:42:40Z</time>
      </trkpt>
      <trkpt lat="37.793340" lon="-120.918100">
        <ele>48.111</ele>
        <time>2018-12-28T06:43:00Z</time>
      </trkpt>
      <trkpt lat="37.793310" lon="-120.917270">
        <ele>48.108</ele>
        <time>2018-12-28T06:43:20Z</time>
      </trkpt>
      <trkpt lat="37.793300" lon="-120.915830">
        <ele>48.385</ele>
        <time>2018-12-28T06:43:40Z</time>
      </trkpt>
      <trkpt lat="37.793290" lon="-120.915650">
        <ele>48.363</ele>
        <time>2018-12-28T06:44:00Z</time>
      </trkpt>
      <trkpt lat="37.793290" lon="-120.914820">
        <ele>48.358</ele>
        <time>2018-12-28T06:44:20Z</time>
      </trkpt>
      <trkpt lat="37.793280" lon="-120.914380">
        <ele>48.337</ele>
        <time>2018-12-28T06:44:40Z</time>
      </trkpt>
      <trkpt lat="37.793280" lon="-120.913890">
        <ele>48.281</ele>
        <time>2018-12-28T06:45:00Z</time>
      </trkpt>
      <trkpt lat="37.793270" lon="-120.913510">
        <ele>48.167</ele>
        <time>2018-12-28T06:45:20Z</time>
      </trkpt>
      <trkpt lat="37.793270" lon="-120.913420">
        <ele>48.134</ele>
        <time>2018-12-28T06:45:40Z</time>
      </trkpt>
      <trkpt lat="37.793270" lon="-120.912980">
        <ele>48.128</ele>
        <time>2018-12-28T06:46:00Z</time>
      </trkpt>
      <trkpt lat="37.793270" lon="-120.912950">
        <ele>48.151</ele>
        <time>2018-12-28T06:46:20Z</time>
      </trkpt>
      <trkpt lat="37.793260" lon="-120.912600">
        <ele>48.101</ele>
        <time>2018-12-28T06:46:40Z</time>
      </trkpt>
      <trkpt lat="37.793250" lon="-120.912090">
        <ele>48.111</ele>
        <time>2018-12-28T06:47:00Z</time>
      </trkpt>
      <trkpt lat="37.793250" lon="-120.912080">
        <ele>48.108</ele>
        <time>2018-12-28T06:47:20Z</time>
      </trkpt>
      <trkpt lat="37.793250" lon="-120.911660">
        <ele>48.048</ele>
        <time>2018-12-28T06:47:40Z</time>
      </trkpt>
      <trkpt lat="37.793240" lon="-120.911300">
        <ele>48.026</ele>
        <time>2018-12-28T06:48:00Z</time>
      </trkpt>
      <trkpt lat="37.793230" lon="-120.910850">
        <ele>48.031</ele>
        <time>2018-12-28T06:48:20Z</time>
      </trkpt>
      <trkpt lat="37.793220" lon="-120.910480">
        <ele>48.050</ele>
        <time>2018-12-28T06:48:40Z</time>
      </trkpt>
      <trkpt lat="37.793220" lon="-120.910050">
        <ele>48.284</ele>
        <time>2018-12-28T06:49:00Z</time>
      </trkpt>
      <trkpt lat="37.793220" lon="-120.910040">
        <ele>48.260</ele>
        <time>2018-12-28T06:49:20Z</time>
      </trkpt>
      <trkpt lat="37.793210" lon="-120.909710">
        <ele>48.577</ele>
        <time>2018-12-28T06:49:40Z</time>
      </trkpt>
      <trkpt lat="37.793200" lon="-120.909210">
        <ele>49.021</ele>
        <time>2018-12-28T06:50:00Z</time>
      </trkpt>
      <trkpt lat="37.793190" lon="-120.908860">
        <ele>49.395</ele>
        <time>2018-12-28T06:50:20Z</time>
      </trkpt>
      <trkpt lat="37.793180" lon="-120.908490">
        <ele>49.549</ele>
        <time>2018-12-28T06:50:40Z</time>
      </trkpt>
      <trkpt lat="37.793180" lon="-120.908170">
        <ele>49.623</ele>
        <time>2018-12-28T06:51:00Z</time>
      </trkpt>
      <trkpt lat="37.793160" lon="-120.907850">
        <ele>49.808</ele>
        <time>2018-12-28T06:51:20Z</time>
      </trkpt>
      <trkpt lat="37.793150" lon="-120.907520">
        <ele>50.392</ele>
        <time>2018-12-28T06:51:40Z</time>
      </trkpt>
      <trkpt lat="37.793140" lon="-120.907120">
        <ele>50.660</ele>
        <time>2018-12-28T06:52:00Z</time>
      </trkpt>
      <trkpt lat="37.793130" lon="-120.906850">
        <ele>50.755</ele>
        <time>2018-12-28T06:52:20Z</time>
      </trkpt>
      <trkpt lat="37.793090" lon="-120.906080">
        <ele>51.084</ele>
        <time>2018-12-28T06:52:40Z</time>
      </trkpt>
      <trkpt lat="37.793000" lon="-120.904740">
        <ele>52.298</ele>
        <time>2018-12-28T06:53:00Z</time>
      </trkpt>
      <trkpt lat="37.792950" lon="-120.903900">
        <ele>52.494</ele>
        <time>2018-12-28T06:53:20Z</time>
      </trkpt>
      <trkpt lat="37.792900" lon="-120.903370">
        <ele>52.291</ele>
        <time>2018-12-28T06:53:40Z</time>
      </trkpt>
      <trkpt lat="37.792820" lon="-120.902510">
        <ele>51.225</ele>
        <time>2018-12-28T06:54:00Z</time>
      </trkpt>
      <trkpt lat="37.792790" lon="-120.902160">
        <ele>51.272</ele>
        <time>2018-12-28T06:54:20Z</time>
      </trkpt>
      <trkpt lat="37.792720" lon="-120.901540">
        <ele>51.113</ele>
        <time>2018-12-28T06:54:40Z</time>
      </trkpt>
      <trkpt lat="37.792700" lon="-120.901350">
        <ele>51.114</ele>
        <time>2018-12-28T06:55:00Z</time>
      </trkpt>
      <trkpt lat="37.792670" lon="-120.901040">
        <ele>51.108</ele>
        <time>2018-12-28T06:55:20Z</time>
      </trkpt>
      <trkpt lat="37.792610" lon="-120.900440">
        <ele>51.140</ele>
        <time>2018-12-28T06:55:40Z</time>
      </trkpt>
      <trkpt lat="37.792550" lon="-120.899850">
        <ele>51.158</ele>
        <time>2018-12-28T06:56:00Z</time>
      </trkpt>
      <trkpt lat="37.792450" lon="-120.898900">
        <ele>51.093</ele>
        <time>2018-12-28T06:56:20Z</time>
      </trkpt>
      <trkpt lat="37.792360" lon="-120.897950">
        <ele>50.082</ele>
        <time>2018-12-28T06:56:40Z</time>
      </trkpt>
      <trkpt lat="37.792250" lon="-120.896920">
        <ele>49.966</ele>
        <time>2018-12-28T06:57:00Z</time>
      </trkpt>
      <trkpt lat="37.792140" lon="-120.895910">
        <ele>50.012</ele>
        <time>2018-12-28T06:57:20Z</time>
      </trkpt>
      <trkpt lat="37.792110" lon="-120.895540">
        <ele>50.469</ele>
        <time>2018-12-28T06:57:40Z</time>
      </trkpt>
      <trkpt lat="37.792070" lon="-120.895230">
        <ele>50.753</ele>
        <time>2018-12-28T06:58:00Z</time>
      </trkpt>
      <trkpt lat="37.791640" lon="-120.891000">
        <ele>52.511</ele>
        <time>2018-12-28T06:58:20Z</time>
      </trkpt>
      <trkpt lat="37.791590" lon="-120.890420">
        <ele>52.621</ele>
        <time>2018-12-28T06:58:40Z</time>
      </trkpt>
      <trkpt lat="37.791560" lon="-120.890080">
        <ele>52.603</ele>
        <time>2018-12-28T06:59:00Z</time>
      </trkpt>
      <trkpt lat="37.791540" lon="-120.889740">
        <ele>52.608</ele>
        <time>2018-12-28T06:59:20Z</time>
      </trkpt>
      <trkpt lat="37.791530" lon="-120.889400">
        <ele>52.614</ele>
        <time>2018-12-28T06:59:40Z</time>
      </trkpt>
      <trkpt lat="37.791520" lon="-120.888930">
        <ele>52.772</ele>
        <time>2018-12-28T07:00:00Z</time>
      </trkpt>
      <trkpt lat="37.791490" lon="-120.887600">
        <ele>52.737</ele>
        <time>2018-12-28T07:00:20Z</time>
      </trkpt>
      <trkpt lat="37.791490" lon="-120.887120">
        <ele>52.846</ele>
        <time>2018-12-28T07:00:40Z</time>
      </trkpt>
      <trkpt lat="37.791480" lon="-120.886570">
        <ele>52.850</ele>
        <time>2018-12-28T07:01:00Z</time>
      </trkpt>
      <trkpt lat="37.791480" lon="-120.886450">
        <ele>52.896</ele>
        <time>2018-12-28T07:01:20Z</time>
      </trkpt>
      <trkpt lat="37.791450" lon="-120.884570">
        <ele>51.833</ele>
        <time>2018-12-28T07:01:40Z</time>
      </trkpt>
      <trkpt lat="37.791440" lon="-120.883700">
        <ele>51.677</ele>
        <time>2018-12-28T07:02:00Z</time>
      </trkpt>
      <trkpt lat="37.791430" lon="-120.883130">
        <ele>51.611</ele>
        <time>2018-12-28T07:02:20Z</time>
      </trkpt>
      <trkpt lat="37.791430" lon="-120.882650">
        <ele>51.621</ele>
        <time>2018-12-28T07:02:40Z</time>
      </trkpt>
      <trkpt lat="37.791420" lon="-120.882250">
        <ele>51.703</ele>
        <time>2018-12-28T07:03:00Z</time>
      </trkpt>
      <trkpt lat="37.791420" lon="-120.882050">
        <ele>51.908</ele>
        <time>2018-12-28T07:03:20Z</time>
      </trkpt>
      <trkpt lat="37.791390" lon="-120.879970">
        <ele>54.224</ele>
        <time>2018-12-28T07:03:40Z</time>
      </trkpt>
      <trkpt lat="37.791350" lon="-120.877990">
        <ele>55.542</ele>
        <time>2018-12-28T07:04:00Z</time>
      </trkpt>
      <trkpt lat="37.791320" lon="-120.875750">
        <ele>55.767</ele>
        <time>2018-12-28T07:04:20Z</time>
      </trkpt>
      <trkpt lat="37.791300" lon="-120.874670">
        <ele>55.796</ele>
        <time>2018-12-28T07:04:40Z</time>
      </trkpt>
      <trkpt lat="37.791270" lon="-120.872980">
        <ele>55.930</ele>
        <time>2018-12-28T07:05:00Z</time>
      </trkpt>
      <trkpt lat="37.791230" lon="-120.871340">
        <ele>56.286</ele>
        <time>2018-12-28T07:05:20Z</time>
      </trkpt>
      <trkpt lat="37.791220" lon="-120.870860">
        <ele>56.383</ele>
        <time>2018-12-28T07:05:40Z</time>
      </trkpt>
      <trkpt lat="37.791210" lon="-120.870730">
        <ele>56.397</ele>
        <time>2018-12-28T07:06:00Z</time>
      </trkpt>
      <trkpt lat="37.791200" lon="-120.870550">
        <ele>56.344</ele>
        <time>2018-12-28T07:06:20Z</time>
      </trkpt>
      <trkpt lat="37.791190" lon="-120.870460">
        <ele>56.305</ele>
        <time>2018-12-28T07:06:40Z</time>
      </trkpt>
      <trkpt lat="37.791160" lon="-120.870140">
        <ele>56.415</ele>
        <time>2018-12-28T07:07:00Z</time>
      </trkpt>
      <trkpt lat="37.791130" lon="-120.869870">
        <ele>56.408</ele>
        <time>2018-12-28T07:07:20Z</time>
      </trkpt>
      <trkpt lat="37.791090" lon="-120.869540">
        <ele>56.447</ele>
        <time>2018-12-28T07:07:40Z</time>
      </trkpt>
      <trkpt lat="37.791030" lon="-120.869170">
        <ele>56.465</ele>
        <time>2018-12-28T07:08:00Z</time>
      </trkpt>
      <trkpt lat="37.791000" lon="-120.869040">
        <ele>56.480</ele>
        <time>2018-12-28T07:08:20Z</time>
      </trkpt>
      <trkpt lat="37.790970" lon="-120.868860">
        <ele>56.419</ele>
        <time>2018-12-28T07:08:40Z</time>
      </trkpt>
      <trkpt lat="37.790890" lon="-120.868510">
        <ele>56.393</ele>
        <time>2018-12-28T07:09:00Z</time>
      </trkpt>
      <trkpt lat="37.790840" lon="-120.868320">
        <ele>56.389</ele>
        <time>2018-12-28T07:09:20Z</time>
      </trkpt>
      <trkpt lat="37.790790" lon="-120.868140">
        <ele>56.386</ele>
        <time>2018-12-28T07:09:40Z</time>
      </trkpt>
      <trkpt lat="37.790750" lon="-120.867990">
        <ele>56.250</ele>
        <time>2018-12-28T07:10:00Z</time>
      </trkpt>
      <trkpt lat="37.790660" lon="-120.867700">
        <ele>56.233</ele>
        <time>2018-12-28T07:10:20Z</time>
      </trkpt>
      <trkpt lat="37.790580" lon="-120.867450">
        <ele>56.223</ele>
        <time>2018-12-28T07:10:40Z</time>
      </trkpt>
      <trkpt lat="37.790540" lon="-120.867330">
        <ele>56.215</ele>
        <time>2018-12-28T07:11:00Z</time>
      </trkpt>
      <trkpt lat="37.790480" lon="-120.867140">
        <ele>56.308</ele>
        <time>2018-12-28T07:11:20Z</time>
      </trkpt>
      <trkpt lat="37.790440" lon="-120.867050">
        <ele>56.326</ele>
        <time>2018-12-28T07:11:40Z</time>
      </trkpt>
      <trkpt lat="37.790410" lon="-120.866970">
        <ele>56.364</ele>
        <time>2018-12-28T07:12:00Z</time>
      </trkpt>
      <trkpt lat="37.790350" lon="-120.866820">
        <ele>56.349</ele>
        <time>2018-12-28T07:12:20Z</time>
      </trkpt>
      <trkpt lat="37.790260" lon="-120.866620">
        <ele>56.428</ele>
        <time>2018-12-28T07:12:40Z</time>
      </trkpt>
      <trkpt lat="37.790130" lon="-120.866330">
        <ele>56.452</ele>
        <time>2018-12-28T07:13:00Z</time>
      </trkpt>
      <trkpt lat="37.789990" lon="-120.866020">
        <ele>56.518</ele>
        <time>2018-12-28T07:13:20Z</time>
      </trkpt>
      <trkpt lat="37.789840" lon="-120.865730">
        <ele>56.545</ele>
        <time>2018-12-28T07:13:40Z</time>
      </trkpt>
      <trkpt lat="37.789740" lon="-120.865550">
        <ele>56.679</ele>
        <time>2018-12-28T07:14:00Z</time>
      </trkpt>
      <trkpt lat="37.789640" lon="-120.865370">
        <ele>56.695</ele>
        <time>2018-12-28T07:14:20Z</time>
      </trkpt>
      <trkpt lat="37.789500" lon="-120.865140">
        <ele>56.649</ele>
        <time>2018-12-28T07:14:40Z</time>
      </trkpt>
      <trkpt lat="37.789380" lon="-120.864950">
        <ele>56.623</ele>
        <time>2018-12-28T07:15:00Z</time>
      </trkpt>
      <trkpt lat="37.789240" lon="-120.864750">
        <ele>56.508</ele>
        <time>2018-12-28T07:15:20Z</time>
      </trkpt>
      <trkpt lat="37.789080" lon="-120.864530">
        <ele>56.512</ele>
        <time>2018-12-28T07:15:40Z</time>
      </trkpt>
      <trkpt lat="37.789000" lon="-120.864420">
        <ele>56.420</ele>
        <time>2018-12-28T07:16:00Z</time>
      </trkpt>
      <trkpt lat="37.788790" lon="-120.864140">
        <ele>56.165</ele>
        <time>2018-12-28T07:16:20Z</time>
      </trkpt>
      <trkpt lat="37.788600" lon="-120.863890">
        <ele>56.074</ele>
        <time>2018-12-28T07:16:40Z</time>
      </trkpt>
      <trkpt lat="37.788340" lon="-120.863590">
        <ele>56.068</ele>
        <time>2018-12-28T07:17:00Z</time>
      </trkpt>
      <trkpt lat="37.788060" lon="-120.863250">
        <ele>56.674</ele>
        <time>2018-12-28T07:17:20Z</time>
      </trkpt>
      <trkpt lat="37.787370" lon="-120.862410">
        <ele>56.711</ele>
        <time>2018-12-28T07:17:40Z</time>
      </trkpt>
      <trkpt lat="37.786840" lon="-120.861770">
        <ele>55.865</ele>
        <time>2018-12-28T07:18:00Z</time>
      </trkpt>
      <trkpt lat="37.786620" lon="-120.861510">
        <ele>55.789</ele>
        <time>2018-12-28T07:18:20Z</time>
      </trkpt>
      <trkpt lat="37.786120" lon="-120.860890">
        <ele>55.606</ele>
        <time>2018-12-28T07:18:40Z</time>
      </trkpt>
      <trkpt lat="37.785850" lon="-120.860560">
        <ele>55.626</ele>
        <time>2018-12-28T07:19:00Z</time>
      </trkpt>
      <trkpt lat="37.785610" lon="-120.860260">
        <ele>55.608</ele>
        <time>2018-12-28T07:19:20Z</time>
      </trkpt>
      <trkpt lat="37.785520" lon="-120.860140">
        <ele>55.671</ele>
        <time>2018-12-28T07:19:40Z</time>
      </trkpt>
      <trkpt lat="37.784770" lon="-120.859240">
        <ele>55.569</ele>
        <time>2018-12-28T07:20:00Z</time>
      </trkpt>
      <trkpt lat="37.784660" lon="-120.859120">
        <ele>55.434</ele>
        <time>2018-12-28T07:20:20Z</time>
      </trkpt>
      <trkpt lat="37.784270" lon="-120.858680">
        <ele>54.943</ele>
        <time>2018-12-28T07:20:40Z</time>
      </trkpt>
      <trkpt lat="37.784020" lon="-120.858370">
        <ele>54.377</ele>
        <time>2018-12-28T07:21:00Z</time>
      </trkpt>
      <trkpt lat="37.783760" lon="-120.858050">
        <ele>53.643</ele>
        <time>2018-12-28T07:21:20Z</time>
      </trkpt>
      <trkpt lat="37.783520" lon="-120.857760">
        <ele>53.170</ele>
        <time>2018-12-28T07:21:40Z</time>
      </trkpt>
      <trkpt lat="37.783440" lon="-120.857660">
        <ele>53.064</ele>
        <time>2018-12-28T07:22:00Z</time>
      </trkpt>
      <trkpt lat="37.783270" lon="-120.857460">
        <ele>52.924</ele>
        <time>2018-12-28T07:22:20Z</time>
      </trkpt>
      <trkpt lat="37.783000" lon="-120.857140">
        <ele>53.004</ele>
        <time>2018-12-28T07:22:40Z</time>
      </trkpt>
      <trkpt lat="37.782810" lon="-120.856910">
        <ele>53.314</ele>
        <time>2018-12-28T07:23:00Z</time>
      </trkpt>
      <trkpt lat="37.782640" lon="-120.856700">
        <ele>53.708</ele>
        <time>2018-12-28T07:23:20Z</time>
      </trkpt>
      <trkpt lat="37.782510" lon="-120.856560">
        <ele>54.795</ele>
        <time>2018-12-28T07:23:40Z</time>
      </trkpt>
      <trkpt lat="37.782290" lon="-120.856320">
        <ele>56.023</ele>
        <time>2018-12-28T07:24:00Z</time>
      </trkpt>
      <trkpt lat="37.782200" lon="-120.856230">
        <ele>56.198</ele>
        <time>2018-12-28T07:24:20Z</time>
      </trkpt>
      <trkpt lat="37.782150" lon="-120.856170">
        <ele>55.957</ele>
        <time>2018-12-28T07:24:40Z</time>
      </trkpt>
      <trkpt lat="37.781990" lon="-120.856010">
        <ele>56.081</ele>
        <time>2018-12-28T07:25:00Z</time>
      </trkpt>
      <trkpt lat="37.781950" lon="-120.855980">
        <ele>56.197</ele>
        <time>2018-12-28T07:25:20Z</time>
      </trkpt>
      <trkpt lat="37.781780" lon="-120.855830">
        <ele>55.654</ele>
        <time>2018-12-28T07:25:40Z</time>
      </trkpt>
      <trkpt lat="37.781760" lon="-120.855810">
        <ele>55.678</ele>
        <time>2018-12-28T07:26:00Z</time>
      </trkpt>
      <trkpt lat="37.781600" lon="-120.855680">
        <ele>56.225</ele>
        <time>2018-12-28T07:26:20Z</time>
      </trkpt>
      <trkpt lat="37.781440" lon="-120.855560">
        <ele>55.926</ele>
        <time>2018-12-28T07:26:40Z</time>
      </trkpt>
      <trkpt lat="37.781340" lon="-120.855490">
        <ele>56.208</ele>
        <time>2018-12-28T07:27:00Z</time>
      </trkpt>
      <trkpt lat="37.781230" lon="-120.855410">
        <ele>56.808</ele>
        <time>2018-12-28T07:27:20Z</time>
      </trkpt>
      <trkpt lat="37.781120" lon="-120.855340">
        <ele>56.495</ele>
        <time>2018-12-28T07:27:40Z</time>
      </trkpt>
      <trkpt lat="37.780960" lon="-120.855240">
        <ele>56.373</ele>
        <time>2018-12-28T07:28:00Z</time>
      </trkpt>
      <trkpt lat="37.780860" lon="-120.855180">
        <ele>55.588</ele>
        <time>2018-12-28T07:28:20Z</time>
      </trkpt>
      <trkpt lat="37.780760" lon="-120.855120">
        <ele>54.647</ele>
        <time>2018-12-28T07:28:40Z</time>
      </trkpt>
      <trkpt lat="37.780240" lon="-120.854850">
        <ele>52.521</ele>
        <time>2018-12-28T07:29:00Z</time>
      </trkpt>
      <trkpt lat="37.779050" lon="-120.854220">
        <ele>46.457</ele>
        <time>2018-12-28T07:29:20Z</time>
      </trkpt>
      <trkpt lat="37.778710" lon="-120.854060">
        <ele>45.384</ele>
        <time>2018-12-28T07:29:40Z</time>
      </trkpt>
      <trkpt lat="37.778440" lon="-120.853920">
        <ele>44.248</ele>
        <time>2018-12-28T07:30:00Z</time>
      </trkpt>
      <trkpt lat="37.778090" lon="-120.853730">
        <ele>44.198</ele>
        <time>2018-12-28T07:30:20Z</time>
      </trkpt>
      <trkpt lat="37.776630" lon="-120.852960">
        <ele>43.815</ele>
        <time>2018-12-28T07:30:40Z</time>
      </trkpt>
      <trkpt lat="37.776210" lon="-120.852730">
        <ele>45.126</ele>
        <time>2018-12-28T07:31:00Z</time>
      </trkpt>
      <trkpt lat="37.776150" lon="-120.852690">
        <ele>45.208</ele>
        <time>2018-12-28T07:31:20Z</time>
      </trkpt>
      <trkpt lat="37.776090" lon="-120.852660">
        <ele>45.212</ele>
        <time>2018-12-28T07:31:40Z</time>
      </trkpt>
      <trkpt lat="37.776070" lon="-120.852650">
        <ele>45.240</ele>
        <time>2018-12-28T07:32:00Z</time>
      </trkpt>
      <trkpt lat="37.776020" lon="-120.852620">
        <ele>45.215</ele>
        <time>2018-12-28T07:32:20Z</time>
      </trkpt>
      <trkpt lat="37.775000" lon="-120.852060">
        <ele>46.264</ele>
        <time>2018-12-28T07:32:40Z</time>
      </trkpt>
      <trkpt lat="37.774890" lon="-120.852000">
        <ele>46.238</ele>
        <time>2018-12-28T07:33:00Z</time>
      </trkpt>
      <trkpt lat="37.774410" lon="-120.851720">
        <ele>46.834</ele>
        <time>2018-12-28T07:33:20Z</time>
      </trkpt>
      <trkpt lat="37.774390" lon="-120.851710">
        <ele>46.851</ele>
        <time>2018-12-28T07:33:40Z</time>
      </trkpt>
      <trkpt lat="37.774190" lon="-120.851600">
        <ele>47.095</ele>
        <time>2018-12-28T07:34:00Z</time>
      </trkpt>
      <trkpt lat="37.774060" lon="-120.851540">
        <ele>47.113</ele>
        <time>2018-12-28T07:34:20Z</time>
      </trkpt>
      <trkpt lat="37.774000" lon="-120.851520">
        <ele>47.143</ele>
        <time>2018-12-28T07:34:40Z</time>
      </trkpt>
      <trkpt lat="37.773730" lon="-120.851420">
        <ele>47.207</ele>
        <time>2018-12-28T07:35:00Z</time>
      </trkpt>
      <trkpt lat="37.773430" lon="-120.851350">
        <ele>47.408</ele>
        <time>2018-12-28T07:35:20Z</time>
      </trkpt>
      <trkpt lat="37.773260" lon="-120.851330">
        <ele>47.414</ele>
        <time>2018-12-28T07:35:40Z</time>
      </trkpt>
      <trkpt lat="37.773120" lon="-120.851300">
        <ele>47.552</ele>
        <time>2018-12-28T07:36:00Z</time>
      </trkpt>
      <trkpt lat="37.773030" lon="-120.851270">
        <ele>47.597</ele>
        <time>2018-12-28T07:36:20Z</time>
      </trkpt>
      <trkpt lat="37.772910" lon="-120.851220">
        <ele>47.616</ele>
        <time>2018-12-28T07:36:40Z</time>
      </trkpt>
      <trkpt lat="37.772830" lon="-120.851180">
        <ele>47.630</ele>
        <time>2018-12-28T07:37:00Z</time>
      </trkpt>
      <trkpt lat="37.772760" lon="-120.851140">
        <ele>47.676</ele>
        <time>2018-12-28T07:37:20Z</time>
      </trkpt>
      <trkpt lat="37.772750" lon="-120.851130">
        <ele>47.713</ele>
        <time>2018-12-28T07:37:40Z</time>
      </trkpt>
      <trkpt lat="37.772650" lon="-120.851060">
        <ele>47.717</ele>
        <time>2018-12-28T07:38:00Z</time>
      </trkpt>
      <trkpt lat="37.772480" lon="-120.850940">
        <ele>47.898</ele>
        <time>2018-12-28T07:38:20Z</time>
      </trkpt>
      <trkpt lat="37.772120" lon="-120.850690">
        <ele>48.015</ele>
        <time>2018-12-28T07:38:40Z</time>
      </trkpt>
      <trkpt lat="37.771790" lon="-120.850470">
        <ele>48.126</ele>
        <time>2018-12-28T07:39:00Z</time>
      </trkpt>
      <trkpt lat="37.771300" lon="-120.850140">
        <ele>48.308</ele>
        <time>2018-12-28T07:39:20Z</time>
      </trkpt>
      <trkpt lat="37.770120" lon="-120.849360">
        <ele>48.492</ele>
        <time>2018-12-28T07:39:40Z</time>
      </trkpt>
      <trkpt lat="37.768960" lon="-120.848590">
        <ele>48.150</ele>
        <time>2018-12-28T07:40:00Z</time>
      </trkpt>
      <trkpt lat="37.767800" lon="-120.847810">
        <ele>48.035</ele>
        <time>2018-12-28T07:40:20Z</time>
      </trkpt>
      <trkpt lat="37.766640" lon="-120.847030">
        <ele>48.154</ele>
        <time>2018-12-28T07:40:40Z</time>
      </trkpt>
      <trkpt lat="37.766637" lon="-120.847029">
        <ele>48.188</ele>
        <time>2018-12-28T07:41:00Z</time>
      </trkpt>
      <trkpt lat="37.766790" lon="-120.846680">
        <ele>48.214</ele>
        <time>2018-12-28T07:41:20Z</time>
      </trkpt>
      <trkpt lat="37.766830" lon="-120.846590">
        <ele>48.231</ele>
        <time>2018-12-28T07:41:40Z</time>
      </trkpt>
      <trkpt lat="37.766840" lon="-120.846560">
        <ele>48.285</ele>
        <time>2018-12-28T07:42:00Z</time>
      </trkpt>
      <trkpt lat="37.766870" lon="-120.846510">
        <ele>48.225</ele>
        <time>2018-12-28T07:42:20Z</time>
      </trkpt>
      <trkpt lat="37.767050" lon="-120.846070">
        <ele>48.226</ele>
        <time>2018-12-28T07:42:40Z</time>
      </trkpt>
      <trkpt lat="37.767400" lon="-120.845210">
        <ele>48.308</ele>
        <time>2018-12-28T07:43:00Z</time>
      </trkpt>
      <trkpt lat="37.767770" lon="-120.844360">
        <ele>48.308</ele>
        <time>2018-12-28T07:43:20Z</time>
      </trkpt>
      <trkpt lat="37.767910" lon="-120.844040">
        <ele>48.375</ele>
        <time>2018-12-28T07:43:40Z</time>
      </trkpt>
      <trkpt lat="37.767960" lon="-120.843890">
        <ele>48.333</ele>
        <time>2018-12-28T07:44:00Z</time>
      </trkpt>
      <trkpt lat="37.768010" lon="-120.843760">
        <ele>48.358</ele>
        <time>2018-12-28T07:44:20Z</time>
      </trkpt>
      <trkpt lat="37.768100" lon="-120.843500">
        <ele>48.477</ele>
        <time>2018-12-28T07:44:40Z</time>
      </trkpt>
      <trkpt lat="37.768370" lon="-120.842620">
        <ele>48.441</ele>
        <time>2018-12-28T07:45:00Z</time>
      </trkpt>
      <trkpt lat="37.768700" lon="-120.841540">
        <ele>48.447</ele>
        <time>2018-12-28T07:45:20Z</time>
      </trkpt>
      <trkpt lat="37.768830" lon="-120.841070">
        <ele>48.434</ele>
        <time>2018-12-28T07:45:40Z</time>
      </trkpt>
      <trkpt lat="37.769090" lon="-120.840220">
        <ele>48.548</ele>
        <time>2018-12-28T07:46:00Z</time>
      </trkpt>
      <trkpt lat="37.769110" lon="-120.840140">
        <ele>48.524</ele>
        <time>2018-12-28T07:46:20Z</time>
      </trkpt>
      <trkpt lat="37.769480" lon="-120.839200">
        <ele>48.604</ele>
        <time>2018-12-28T07:46:40Z</time>
      </trkpt>
      <trkpt lat="37.769650" lon="-120.838770">
        <ele>48.714</ele>
        <time>2018-12-28T07:47:00Z</time>
      </trkpt>
      <trkpt lat="37.769850" lon="-120.838280">
        <ele>48.708</ele>
        <time>2018-12-28T07:47:20Z</time>
      </trkpt>
      <trkpt lat="37.770070" lon="-120.837740">
        <ele>48.845</ele>
        <time>2018-12-28T07:47:40Z</time>
      </trkpt>
      <trkpt lat="37.770210" lon="-120.837370">
        <ele>48.973</ele>
        <time>2018-12-28T07:48:00Z</time>
      </trkpt>
      <trkpt lat="37.770370" lon="-120.836980">
        <ele>49.048</ele>
        <time>2018-12-28T07:48:20Z</time>
      </trkpt>
      <trkpt lat="37.770440" lon="-120.836780">
        <ele>49.057</ele>
        <time>2018-12-28T07:48:40Z</time>
      </trkpt>
      <trkpt lat="37.770520" lon="-120.836600">
        <ele>49.081</ele>
        <time>2018-12-28T07:49:00Z</time>
      </trkpt>
      <trkpt lat="37.770620" lon="-120.836350">
        <ele>49.117</ele>
        <time>2018-12-28T07:49:20Z</time>
      </trkpt>
      <trkpt lat="37.770790" lon="-120.835910">
        <ele>49.124</ele>
        <time>2018-12-28T07:49:40Z</time>
      </trkpt>
      <trkpt lat="37.770870" lon="-120.835710">
        <ele>49.248</ele>
        <time>2018-12-28T07:50:00Z</time>
      </trkpt>
      <trkpt lat="37.770990" lon="-120.835410">
        <ele>49.231</ele>
        <time>2018-12-28T07:50:20Z</time>
      </trkpt>
      <trkpt lat="37.771140" lon="-120.835030">
        <ele>49.361</ele>
        <time>2018-12-28T07:50:40Z</time>
      </trkpt>
      <trkpt lat="37.771250" lon="-120.834740">
        <ele>49.307</ele>
        <time>2018-12-28T07:51:00Z</time>
      </trkpt>
      <trkpt lat="37.771830" lon="-120.833290">
        <ele>49.508</ele>
        <time>2018-12-28T07:51:20Z</time>
      </trkpt>
      <trkpt lat="37.772110" lon="-120.832590">
        <ele>49.556</ele>
        <time>2018-12-28T07:51:40Z</time>
      </trkpt>
      <trkpt lat="37.772300" lon="-120.832100">
        <ele>49.684</ele>
        <time>2018-12-28T07:52:00Z</time>
      </trkpt>
      <trkpt lat="37.772370" lon="-120.831910">
        <ele>49.669</ele>
        <time>2018-12-28T07:52:20Z</time>
      </trkpt>
      <trkpt lat="37.772630" lon="-120.831260">
        <ele>49.638</ele>
        <time>2018-12-28T07:52:40Z</time>
      </trkpt>
      <trkpt lat="37.772930" lon="-120.830470">
        <ele>49.672</ele>
        <time>2018-12-28T07:53:00Z</time>
      </trkpt>
      <trkpt lat="37.772980" lon="-120.830360">
        <ele>49.628</ele>
        <time>2018-12-28T07:53:20Z</time>
      </trkpt>
      <trkpt lat="37.773070" lon="-120.830100">
        <ele>49.625</ele>
        <time>2018-12-28T07:53:40Z</time>
      </trkpt>
      <trkpt lat="37.773160" lon="-120.829870">
        <ele>49.619</ele>
        <time>2018-12-28T07:54:00Z</time>
      </trkpt>
      <trkpt lat="37.773360" lon="-120.829380">
        <ele>49.644</ele>
        <time>2018-12-28T07:54:20Z</time>
      </trkpt>
      <trkpt lat="37.773440" lon="-120.829180">
        <ele>49.605</ele>
        <time>2018-12-28T07:54:40Z</time>
      </trkpt>
      <trkpt lat="37.773610" lon="-120.828730">
        <ele>49.615</ele>
        <time>2018-12-28T07:55:00Z</time>
      </trkpt>
      <trkpt lat="37.773780" lon="-120.828300">
        <ele>49.608</ele>
        <time>2018-12-28T07:55:20Z</time>
      </trkpt>
      <trkpt lat="37.773810" lon="-120.828210">
        <ele>49.657</ele>
        <time>2018-12-28T07:55:40Z</time>
      </trkpt>
      <trkpt lat="37.773970" lon="-120.827790">
        <ele>49.695</ele>
        <time>2018-12-28T07:56:00Z</time>
      </trkpt>
      <trkpt lat="37.774010" lon="-120.827710">
        <ele>49.670</ele>
        <time>2018-12-28T07:56:20Z</time>
      </trkpt>
      <trkpt lat="37.774080" lon="-120.827510">
        <ele>49.699</ele>
        <time>2018-12-28T07:56:40Z</time>
      </trkpt>
      <trkpt lat="37.774220" lon="-120.827150">
        <ele>49.663</ele>
        <time>2018-12-28T07:57:00Z</time>
      </trkpt>
      <trkpt lat="37.774260" lon="-120.827020">
        <ele>49.689</ele>
        <time>2018-12-28T07:57:20Z</time>
      </trkpt>
      <trkpt lat="37.774310" lon="-120.826880">
        <ele>49.696</ele>
        <time>2018-12-28T07:57:40Z</time>
      </trkpt>
      <trkpt lat="37.774340" lon="-120.826760">
        <ele>49.690</ele>
        <time>2018-12-28T07:58:00Z</time>
      </trkpt>
      <trkpt lat="37.774370" lon="-120.826600">
        <ele>49.627</ele>
        <time>2018-12-28T07:58:20Z</time>
      </trkpt>
      <trkpt lat="37.774450" lon="-120.826110">
        <ele>49.668</ele>
        <time>2018-12-28T07:58:40Z</time>
      </trkpt>
      <trkpt lat="37.774520" lon="-120.825720">
        <ele>49.614</ele>
        <time>2018-12-28T07:59:00Z</time>
      </trkpt>
      <trkpt lat="37.774720" lon="-120.824490">
        <ele>50.408</ele>
        <time>2018-12-28T07:59:20Z</time>
      </trkpt>
      <trkpt lat="37.774980" lon="-120.822860">
        <ele>51.755</ele>
        <time>2018-12-28T07:59:40Z</time>
      </trkpt>
      <trkpt lat="37.775110" lon="-120.822040">
        <ele>52.033</ele>
        <time>2018-12-28T08:00:00Z</time>
      </trkpt>
      <trkpt lat="37.775220" lon="-120.821350">
        <ele>52.298</ele>
        <time>2018-12-28T08:00:20Z</time>
      </trkpt>
      <trkpt lat="37.775340" lon="-120.820760">
        <ele>52.427</ele>
        <time>2018-12-28T08:00:40Z</time>
      </trkpt>
      <trkpt lat="37.775460" lon="-120.820180">
        <ele>52.481</ele>
        <time>2018-12-28T08:01:00Z</time>
      </trkpt>
      <trkpt lat="37.775850" lon="-120.818320">
        <ele>52.837</ele>
        <time>2018-12-28T08:01:20Z</time>
      </trkpt>
      <trkpt lat="37.775950" lon="-120.817860">
        <ele>53.894</ele>
        <time>2018-12-28T08:01:40Z</time>
      </trkpt>
      <trkpt lat="37.776020" lon="-120.817470">
        <ele>54.988</ele>
        <time>2018-12-28T08:02:00Z</time>
      </trkpt>
      <trkpt lat="37.776110" lon="-120.817050">
        <ele>55.634</ele>
        <time>2018-12-28T08:02:20Z</time>
      </trkpt>
      <trkpt lat="37.776180" lon="-120.816680">
        <ele>55.655</ele>
        <time>2018-12-28T08:02:40Z</time>
      </trkpt>
      <trkpt lat="37.776240" lon="-120.816340">
        <ele>55.910</ele>
        <time>2018-12-28T08:03:00Z</time>
      </trkpt>
      <trkpt lat="37.776310" lon="-120.815750">
        <ele>55.308</ele>
        <time>2018-12-28T08:03:20Z</time>
      </trkpt>
      <trkpt lat="37.776330" lon="-120.815490">
        <ele>56.156</ele>
        <time>2018-12-28T08:03:40Z</time>
      </trkpt>
      <trkpt lat="37.776350" lon="-120.815230">
        <ele>56.654</ele>
        <time>2018-12-28T08:04:00Z</time>
      </trkpt>
      <trkpt lat="37.776370" lon="-120.814710">
        <ele>58.979</ele>
        <time>2018-12-28T08:04:20Z</time>
      </trkpt>
      <trkpt lat="37.776390" lon="-120.814000">
        <ele>61.148</ele>
        <time>2018-12-28T08:04:40Z</time>
      </trkpt>
      <trkpt lat="37.776390" lon="-120.812960">
        <ele>63.782</ele>
        <time>2018-12-28T08:05:00Z</time>
      </trkpt>
      <trkpt lat="37.776380" lon="-120.812820">
        <ele>63.728</ele>
        <time>2018-12-28T08:05:20Z</time>
      </trkpt>
      <trkpt lat="37.776390" lon="-120.811670">
        <ele>63.625</ele>
        <time>2018-12-28T08:05:40Z</time>
      </trkpt>
      <trkpt lat="37.776390" lon="-120.811080">
        <ele>64.349</ele>
        <time>2018-12-28T08:06:00Z</time>
      </trkpt>
      <trkpt lat="37.776400" lon="-120.808930">
        <ele>67.024</ele>
        <time>2018-12-28T08:06:20Z</time>
      </trkpt>
      <trkpt lat="37.776410" lon="-120.807940">
        <ele>68.004</ele>
        <time>2018-12-28T08:06:40Z</time>
      </trkpt>
      <trkpt lat="37.776410" lon="-120.807720">
        <ele>68.314</ele>
        <time>2018-12-28T08:07:00Z</time>
      </trkpt>
      <trkpt lat="37.776410" lon="-120.807160">
        <ele>69.308</ele>
        <time>2018-12-28T08:07:20Z</time>
      </trkpt>
      <trkpt lat="37.776410" lon="-120.804380">
        <ele>71.425</ele>
        <time>2018-12-28T08:07:40Z</time>
      </trkpt>
      <trkpt lat="37.776420" lon="-120.803380">
        <ele>71.643</ele>
        <time>2018-12-28T08:08:00Z</time>
      </trkpt>
      <trkpt lat="37.776420" lon="-120.803000">
        <ele>71.598</ele>
        <time>2018-12-28T08:08:20Z</time>
      </trkpt>
      <trkpt lat="37.776430" lon="-120.802210">
        <ele>71.167</ele>
        <time>2018-12-28T08:08:40Z</time>
      </trkpt>
      <trkpt lat="37.776430" lon="-120.801500">
        <ele>69.241</ele>
        <time>2018-12-28T08:09:00Z</time>
      </trkpt>
      <trkpt lat="37.776450" lon="-120.797630">
        <ele>72.157</ele>
        <time>2018-12-28T08:09:20Z</time>
      </trkpt>
      <trkpt lat="37.776450" lon="-120.797160">
        <ele>72.524</ele>
        <time>2018-12-28T08:09:40Z</time>
      </trkpt>
      <trkpt lat="37.776450" lon="-120.796360">
        <ele>72.458</ele>
        <time>2018-12-28T08:10:00Z</time>
      </trkpt>
      <trkpt lat="37.776460" lon="-120.795270">
        <ele>72.474</ele>
        <time>2018-12-28T08:10:20Z</time>
      </trkpt>
      <trkpt lat="37.776470" lon="-120.793410">
        <ele>72.656</ele>
        <time>2018-12-28T08:10:40Z</time>
      </trkpt>
      <trkpt lat="37.776470" lon="-120.793030">
        <ele>72.621</ele>
        <time>2018-12-28T08:11:00Z</time>
      </trkpt>
      <trkpt lat="37.776470" lon="-120.791960">
        <ele>72.608</ele>
        <time>2018-12-28T08:11:20Z</time>
      </trkpt>
      <trkpt lat="37.776470" lon="-120.789020">
        <ele>72.420</ele>
        <time>2018-12-28T08:11:40Z</time>
      </trkpt>
      <trkpt lat="37.776490" lon="-120.784990">
        <ele>73.488</ele>
        <time>2018-12-28T08:12:00Z</time>
      </trkpt>
      <trkpt lat="37.776500" lon="-120.784030">
        <ele>73.543</ele>
        <time>2018-12-28T08:12:20Z</time>
      </trkpt>
      <trkpt lat="37.776490" lon="-120.782900">
        <ele>72.362</ele>
        <time>2018-12-28T08:12:40Z</time>
      </trkpt>
      <trkpt lat="37.776480" lon="-120.782110">
        <ele>71.426</ele>
        <time>2018-12-28T08:13:00Z</time>
      </trkpt>
      <trkpt lat="37.776490" lon="-120.781540">
        <ele>71.072</ele>
        <time>2018-12-28T08:13:20Z</time>
      </trkpt>
      <trkpt lat="37.776490" lon="-120.781120">
        <ele>70.929</ele>
        <time>2018-12-28T08:13:40Z</time>
      </trkpt>
      <trkpt lat="37.776500" lon="-120.780580">
        <ele>70.913</ele>
        <time>2018-12-28T08:14:00Z</time>
      </trkpt>
      <trkpt lat="37.776510" lon="-120.778930">
        <ele>70.962</ele>
        <time>2018-12-28T08:14:20Z</time>
      </trkpt>
      <trkpt lat="37.776510" lon="-120.778110">
        <ele>70.983</ele>
        <time>2018-12-28T08:14:40Z</time>
      </trkpt>
      <trkpt lat="37.776520" lon="-120.777490">
        <ele>70.611</ele>
        <time>2018-12-28T08:15:00Z</time>
      </trkpt>
      <trkpt lat="37.776550" lon="-120.776870">
        <ele>70.808</ele>
        <time>2018-12-28T08:15:20Z</time>
      </trkpt>
      <trkpt lat="37.776590" lon="-120.776230">
        <ele>71.379</ele>
        <time>2018-12-28T08:15:40Z</time>
      </trkpt>
      <trkpt lat="37.776650" lon="-120.775720">
        <ele>69.547</ele>
        <time>2018-12-28T08:16:00Z</time>
      </trkpt>
      <trkpt lat="37.776690" lon="-120.775370">
        <ele>68.742</ele>
        <time>2018-12-28T08:16:20Z</time>
      </trkpt>
      <trkpt lat="37.776750" lon="-120.774880">
        <ele>67.561</ele>
        <time>2018-12-28T08:16:40Z</time>
      </trkpt>
      <trkpt lat="37.776780" lon="-120.774710">
        <ele>66.965</ele>
        <time>2018-12-28T08:17:00Z</time>
      </trkpt>
      <trkpt lat="37.776860" lon="-120.774270">
        <ele>65.321</ele>
        <time>2018-12-28T08:17:20Z</time>
      </trkpt>
      <trkpt lat="37.776900" lon="-120.774020">
        <ele>63.978</ele>
        <time>2018-12-28T08:17:40Z</time>
      </trkpt>
      <trkpt lat="37.776960" lon="-120.773730">
        <ele>62.822</ele>
        <time>2018-12-28T08:18:00Z</time>
      </trkpt>
      <trkpt lat="37.777000" lon="-120.773550">
        <ele>62.745</ele>
        <time>2018-12-28T08:18:20Z</time>
      </trkpt>
      <trkpt lat="37.777090" lon="-120.773160">
        <ele>62.747</ele>
        <time>2018-12-28T08:18:40Z</time>
      </trkpt>
      <trkpt lat="37.777260" lon="-120.772470">
        <ele>63.011</ele>
        <time>2018-12-28T08:19:00Z</time>
      </trkpt>
      <trkpt lat="37.778340" lon="-120.768080">
        <ele>61.708</ele>
        <time>2018-12-28T08:19:20Z</time>
      </trkpt>
      <trkpt lat="37.779300" lon="-120.764190">
        <ele>59.657</ele>
        <time>2018-12-28T08:19:40Z</time>
      </trkpt>
      <trkpt lat="37.779910" lon="-120.761700">
        <ele>59.255</ele>
        <time>2018-12-28T08:20:00Z</time>
      </trkpt>
      <trkpt lat="37.780230" lon="-120.760420">
        <ele>59.420</ele>
        <time>2018-12-28T08:20:20Z</time>
      </trkpt>
      <trkpt lat="37.780420" lon="-120.759600">
        <ele>59.559</ele>
        <time>2018-12-28T08:20:40Z</time>
      </trkpt>
      <trkpt lat="37.780440" lon="-120.759400">
        <ele>59.533</ele>
        <time>2018-12-28T08:21:00Z</time>
      </trkpt>
      <trkpt lat="37.780570" lon="-120.758770">
        <ele>59.759</ele>
        <time>2018-12-28T08:21:20Z</time>
      </trkpt>
      <trkpt lat="37.780730" lon="-120.757980">
        <ele>59.866</ele>
        <time>2018-12-28T08:21:40Z</time>
      </trkpt>
      <trkpt lat="37.780870" lon="-120.757330">
        <ele>60.060</ele>
        <time>2018-12-28T08:22:00Z</time>
      </trkpt>
      <trkpt lat="37.781050" lon="-120.756560">
        <ele>60.288</ele>
        <time>2018-12-28T08:22:20Z</time>
      </trkpt>
      <trkpt lat="37.782240" lon="-120.751760">
        <ele>62.124</ele>
        <time>2018-12-28T08:22:40Z</time>
      </trkpt>
      <trkpt lat="37.782900" lon="-120.749150">
        <ele>67.626</ele>
        <time>2018-12-28T08:23:00Z</time>
      </trkpt>
      <trkpt lat="37.783100" lon="-120.748390">
        <ele>72.308</ele>
        <time>2018-12-28T08:23:20Z</time>
      </trkpt>
      <trkpt lat="37.783310" lon="-120.747520">
        <ele>73.731</ele>
        <time>2018-12-28T08:23:40Z</time>
      </trkpt>
      <trkpt lat="37.783490" lon="-120.746810">
        <ele>73.429</ele>
        <time>2018-12-28T08:24:00Z</time>
      </trkpt>
      <trkpt lat="37.784210" lon="-120.743910">
        <ele>72.934</ele>
        <time>2018-12-28T08:24:20Z</time>
      </trkpt>
      <trkpt lat="37.784400" lon="-120.743110">
        <ele>66.993</ele>
        <time>2018-12-28T08:24:40Z</time>
      </trkpt>
      <trkpt lat="37.784500" lon="-120.742650">
        <ele>66.047</ele>
        <time>2018-12-28T08:25:00Z</time>
      </trkpt>
      <trkpt lat="37.784940" lon="-120.740790">
        <ele>61.413</ele>
        <time>2018-12-28T08:25:20Z</time>
      </trkpt>
      <trkpt lat="37.785010" lon="-120.740640">
        <ele>59.730</ele>
        <time>2018-12-28T08:25:40Z</time>
      </trkpt>
      <trkpt lat="37.785290" lon="-120.739380">
        <ele>56.554</ele>
        <time>2018-12-28T08:26:00Z</time>
      </trkpt>
      <trkpt lat="37.785470" lon="-120.738690">
        <ele>56.855</ele>
        <time>2018-12-28T08:26:20Z</time>
      </trkpt>
      <trkpt lat="37.785680" lon="-120.737810">
        <ele>57.007</ele>
        <time>2018-12-28T08:26:40Z</time>
      </trkpt>
      <trkpt lat="37.785850" lon="-120.737140">
        <ele>57.117</ele>
        <time>2018-12-28T08:27:00Z</time>
      </trkpt>
      <trkpt lat="37.786070" lon="-120.736250">
        <ele>57.208</ele>
        <time>2018-12-28T08:27:20Z</time>
      </trkpt>
      <trkpt lat="37.786300" lon="-120.735400">
        <ele>57.478</ele>
        <time>2018-12-28T08:27:40Z</time>
      </trkpt>
      <trkpt lat="37.786440" lon="-120.734890">
        <ele>57.476</ele>
        <time>2018-12-28T08:28:00Z</time>
      </trkpt>
      <trkpt lat="37.786540" lon="-120.734540">
        <ele>57.411</ele>
        <time>2018-12-28T08:28:20Z</time>
      </trkpt>
      <trkpt lat="37.786610" lon="-120.734300">
        <ele>57.410</ele>
        <time>2018-12-28T08:28:40Z</time>
      </trkpt>
      <trkpt lat="37.786680" lon="-120.734000">
        <ele>57.494</ele>
        <time>2018-12-28T08:29:00Z</time>
      </trkpt>
      <trkpt lat="37.786780" lon="-120.733510">
        <ele>57.320</ele>
        <time>2018-12-28T08:29:20Z</time>
      </trkpt>
      <trkpt lat="37.786840" lon="-120.733200">
        <ele>57.317</ele>
        <time>2018-12-28T08:29:40Z</time>
      </trkpt>
      <trkpt lat="37.786950" lon="-120.732620">
        <ele>57.381</ele>
        <time>2018-12-28T08:30:00Z</time>
      </trkpt>
      <trkpt lat="37.787060" lon="-120.732000">
        <ele>57.123</ele>
        <time>2018-12-28T08:30:20Z</time>
      </trkpt>
      <trkpt lat="37.787150" lon="-120.731590">
        <ele>56.583</ele>
        <time>2018-12-28T08:30:40Z</time>
      </trkpt>
      <trkpt lat="37.787240" lon="-120.731220">
        <ele>56.111</ele>
        <time>2018-12-28T08:31:00Z</time>
      </trkpt>
      <trkpt lat="37.787330" lon="-120.730820">
        <ele>56.608</ele>
        <time>2018-12-28T08:31:20Z</time>
      </trkpt>
      <trkpt lat="37.787390" lon="-120.730550">
        <ele>55.335</ele>
        <time>2018-12-28T08:31:40Z</time>
      </trkpt>
      <trkpt lat="37.787450" lon="-120.730310">
        <ele>52.563</ele>
        <time>2018-12-28T08:32:00Z</time>
      </trkpt>
      <trkpt lat="37.787520" lon="-120.730050">
        <ele>50.588</ele>
        <time>2018-12-28T08:32:20Z</time>
      </trkpt>
      <trkpt lat="37.787610" lon="-120.729730">
        <ele>51.597</ele>
        <time>2018-12-28T08:32:40Z</time>
      </trkpt>
      <trkpt lat="37.787660" lon="-120.729580">
        <ele>53.621</ele>
        <time>2018-12-28T08:33:00Z</time>
      </trkpt>
      <trkpt lat="37.787700" lon="-120.729480">
        <ele>54.777</ele>
        <time>2018-12-28T08:33:20Z</time>
      </trkpt>
      <trkpt lat="37.787740" lon="-120.729380">
        <ele>55.624</ele>
        <time>2018-12-28T08:33:40Z</time>
      </trkpt>
      <trkpt lat="37.787790" lon="-120.729260">
        <ele>56.658</ele>
        <time>2018-12-28T08:34:00Z</time>
      </trkpt>
      <trkpt lat="37.787840" lon="-120.729150">
        <ele>57.515</ele>
        <time>2018-12-28T08:34:20Z</time>
      </trkpt>
      <trkpt lat="37.787940" lon="-120.728980">
        <ele>58.465</ele>
        <time>2018-12-28T08:34:40Z</time>
      </trkpt>
      <trkpt lat="37.788010" lon="-120.728870">
        <ele>58.911</ele>
        <time>2018-12-28T08:35:00Z</time>
      </trkpt>
      <trkpt lat="37.788070" lon="-120.728790">
        <ele>59.108</ele>
        <time>2018-12-28T08:35:20Z</time>
      </trkpt>
      <trkpt lat="37.788220" lon="-120.728610">
        <ele>58.944</ele>
        <time>2018-12-28T08:35:40Z</time>
      </trkpt>
      <trkpt lat="37.788380" lon="-120.728430">
        <ele>58.532</ele>
        <time>2018-12-28T08:36:00Z</time>
      </trkpt>
      <trkpt lat="37.788570" lon="-120.728240">
        <ele>57.727</ele>
        <time>2018-12-28T08:36:20Z</time>
      </trkpt>
      <trkpt lat="37.788910" lon="-120.727920">
        <ele>56.726</ele>
        <time>2018-12-28T08:36:40Z</time>
      </trkpt>
      <trkpt lat="37.789050" lon="-120.727790">
        <ele>55.680</ele>
        <time>2018-12-28T08:37:00Z</time>
      </trkpt>
      <trkpt lat="37.789160" lon="-120.727700">
        <ele>54.296</ele>
        <time>2018-12-28T08:37:20Z</time>
      </trkpt>
      <trkpt lat="37.789580" lon="-120.727350">
        <ele>53.033</ele>
        <time>2018-12-28T08:37:40Z</time>
      </trkpt>
      <trkpt lat="37.790120" lon="-120.726910">
        <ele>52.427</ele>
        <time>2018-12-28T08:38:00Z</time>
      </trkpt>
      <trkpt lat="37.790900" lon="-120.726280">
        <ele>52.225</ele>
        <time>2018-12-28T08:38:20Z</time>
      </trkpt>
      <trkpt lat="37.791140" lon="-120.726110">
        <ele>52.326</ele>
        <time>2018-12-28T08:38:40Z</time>
      </trkpt>
      <trkpt lat="37.791250" lon="-120.726040">
        <ele>52.208</ele>
        <time>2018-12-28T08:39:00Z</time>
      </trkpt>
      <trkpt lat="37.791340" lon="-120.725980">
        <ele>51.808</ele>
        <time>2018-12-28T08:39:20Z</time>
      </trkpt>
      <trkpt lat="37.791530" lon="-120.725870">
        <ele>50.685</ele>
        <time>2018-12-28T08:39:40Z</time>
      </trkpt>
      <trkpt lat="37.791990" lon="-120.725580">
        <ele>50.323</ele>
        <time>2018-12-28T08:40:00Z</time>
      </trkpt>
      <trkpt lat="37.792060" lon="-120.725540">
        <ele>50.418</ele>
        <time>2018-12-28T08:40:20Z</time>
      </trkpt>
      <trkpt lat="37.792130" lon="-120.725510">
        <ele>50.647</ele>
        <time>2018-12-28T08:40:40Z</time>
      </trkpt>
      <trkpt lat="37.792260" lon="-120.725440">
        <ele>51.081</ele>
        <time>2018-12-28T08:41:00Z</time>
      </trkpt>
      <trkpt lat="37.792340" lon="-120.725410">
        <ele>51.397</ele>
        <time>2018-12-28T08:41:20Z</time>
      </trkpt>
      <trkpt lat="37.792430" lon="-120.725370">
        <ele>51.864</ele>
        <time>2018-12-28T08:41:40Z</time>
      </trkpt>
      <trkpt lat="37.792510" lon="-120.725350">
        <ele>52.428</ele>
        <time>2018-12-28T08:42:00Z</time>
      </trkpt>
      <trkpt lat="37.792640" lon="-120.725310">
        <ele>53.489</ele>
        <time>2018-12-28T08:42:20Z</time>
      </trkpt>
      <trkpt lat="37.792800" lon="-120.725280">
        <ele>54.206</ele>
        <time>2018-12-28T08:42:40Z</time>
      </trkpt>
      <trkpt lat="37.792930" lon="-120.725260">
        <ele>54.726</ele>
        <time>2018-12-28T08:43:00Z</time>
      </trkpt>
      <trkpt lat="37.793200" lon="-120.725210">
        <ele>55.008</ele>
        <time>2018-12-28T08:43:20Z</time>
      </trkpt>
      <trkpt lat="37.793410" lon="-120.725170">
        <ele>55.161</ele>
        <time>2018-12-28T08:43:40Z</time>
      </trkpt>
      <trkpt lat="37.793640" lon="-120.725110">
        <ele>55.749</ele>
        <time>2018-12-28T08:44:00Z</time>
      </trkpt>
      <trkpt lat="37.793800" lon="-120.725060">
        <ele>56.364</ele>
        <time>2018-12-28T08:44:20Z</time>
      </trkpt>
      <trkpt lat="37.793960" lon="-120.725010">
        <ele>56.083</ele>
        <time>2018-12-28T08:44:40Z</time>
      </trkpt>
      <trkpt lat="37.794090" lon="-120.724960">
        <ele>55.567</ele>
        <time>2018-12-28T08:45:00Z</time>
      </trkpt>
      <trkpt lat="37.794140" lon="-120.724940">
        <ele>55.513</ele>
        <time>2018-12-28T08:45:20Z</time>
      </trkpt>
      <trkpt lat="37.794460" lon="-120.724810">
        <ele>55.820</ele>
        <time>2018-12-28T08:45:40Z</time>
      </trkpt>
      <trkpt lat="37.794890" lon="-120.724630">
        <ele>55.544</ele>
        <time>2018-12-28T08:46:00Z</time>
      </trkpt>
      <trkpt lat="37.795290" lon="-120.724460">
        <ele>55.221</ele>
        <time>2018-12-28T08:46:20Z</time>
      </trkpt>
      <trkpt lat="37.795590" lon="-120.724340">
        <ele>54.641</ele>
        <time>2018-12-28T08:46:40Z</time>
      </trkpt>
      <trkpt lat="37.795880" lon="-120.724190">
        <ele>54.405</ele>
        <time>2018-12-28T08:47:00Z</time>
      </trkpt>
      <trkpt lat="37.796050" lon="-120.724090">
        <ele>54.208</ele>
        <time>2018-12-28T08:47:20Z</time>
      </trkpt>
      <trkpt lat="37.796160" lon="-120.724030">
        <ele>54.165</ele>
        <time>2018-12-28T08:47:40Z</time>
      </trkpt>
      <trkpt lat="37.796300" lon="-120.723930">
        <ele>53.913</ele>
        <time>2018-12-28T08:48:00Z</time>
      </trkpt>
      <trkpt lat="37.796490" lon="-120.723790">
        <ele>53.398</ele>
        <time>2018-12-28T08:48:20Z</time>
      </trkpt>
      <trkpt lat="37.796710" lon="-120.723610">
        <ele>52.467</ele>
        <time>2018-12-28T08:48:40Z</time>
      </trkpt>
      <trkpt lat="37.797390" lon="-120.723050">
        <ele>51.411</ele>
        <time>2018-12-28T08:49:00Z</time>
      </trkpt>
      <trkpt lat="37.798180" lon="-120.722400">
        <ele>53.697</ele>
        <time>2018-12-28T08:49:20Z</time>
      </trkpt>
      <trkpt lat="37.798770" lon="-120.721930">
        <ele>55.024</ele>
        <time>2018-12-28T08:49:40Z</time>
      </trkpt>
      <trkpt lat="37.799250" lon="-120.721540">
        <ele>54.628</ele>
        <time>2018-12-28T08:50:00Z</time>
      </trkpt>
      <trkpt lat="37.799700" lon="-120.721210">
        <ele>54.566</ele>
        <time>2018-12-28T08:50:20Z</time>
      </trkpt>
      <trkpt lat="37.799950" lon="-120.721020">
        <ele>54.729</ele>
        <time>2018-12-28T08:50:40Z</time>
      </trkpt>
      <trkpt lat="37.800300" lon="-120.720760">
        <ele>55.321</ele>
        <time>2018-12-28T08:51:00Z</time>
      </trkpt>
      <trkpt lat="37.800650" lon="-120.720500">
        <ele>55.508</ele>
        <time>2018-12-28T08:51:20Z</time>
      </trkpt>
      <trkpt lat="37.801320" lon="-120.720000">
        <ele>59.189</ele>
        <time>2018-12-28T08:51:40Z</time>
      </trkpt>
      <trkpt lat="37.801820" lon="-120.719640">
        <ele>60.697</ele>
        <time>2018-12-28T08:52:00Z</time>
      </trkpt>
      <trkpt lat="37.802180" lon="-120.719390">
        <ele>61.162</ele>
        <time>2018-12-28T08:52:20Z</time>
      </trkpt>
      <trkpt lat="37.802590" lon="-120.719080">
        <ele>61.441</ele>
        <time>2018-12-28T08:52:40Z</time>
      </trkpt>
      <trkpt lat="37.802800" lon="-120.718890">
        <ele>62.275</ele>
        <time>2018-12-28T08:53:00Z</time>
      </trkpt>
      <trkpt lat="37.802970" lon="-120.718740">
        <ele>63.211</ele>
        <time>2018-12-28T08:53:20Z</time>
      </trkpt>
      <trkpt lat="37.803080" lon="-120.718630">
        <ele>64.458</ele>
        <time>2018-12-28T08:53:40Z</time>
      </trkpt>
      <trkpt lat="37.803580" lon="-120.718070">
        <ele>66.672</ele>
        <time>2018-12-28T08:54:00Z</time>
      </trkpt>
      <trkpt lat="37.803740" lon="-120.717900">
        <ele>66.761</ele>
        <time>2018-12-28T08:54:20Z</time>
      </trkpt>
      <trkpt lat="37.803880" lon="-120.717750">
        <ele>66.721</ele>
        <time>2018-12-28T08:54:40Z</time>
      </trkpt>
      <trkpt lat="37.804060" lon="-120.717560">
        <ele>66.713</ele>
        <time>2018-12-28T08:55:00Z</time>
      </trkpt>
      <trkpt lat="37.804260" lon="-120.717330">
        <ele>66.708</ele>
        <time>2018-12-28T08:55:20Z</time>
      </trkpt>
      <trkpt lat="37.804560" lon="-120.716970">
        <ele>66.769</ele>
        <time>2018-12-28T08:55:40Z</time>
      </trkpt>
      <trkpt lat="37.804980" lon="-120.716450">
        <ele>66.887</ele>
        <time>2018-12-28T08:56:00Z</time>
      </trkpt>
      <trkpt lat="37.805200" lon="-120.716170">
        <ele>66.872</ele>
        <time>2018-12-28T08:56:20Z</time>
      </trkpt>
      <trkpt lat="37.805480" lon="-120.715810">
        <ele>66.821</ele>
        <time>2018-12-28T08:56:40Z</time>
      </trkpt>
      <trkpt lat="37.805670" lon="-120.715560">
        <ele>66.835</ele>
        <time>2018-12-28T08:57:00Z</time>
      </trkpt>
      <trkpt lat="37.805850" lon="-120.715350">
        <ele>66.571</ele>
        <time>2018-12-28T08:57:20Z</time>
      </trkpt>
      <trkpt lat="37.805980" lon="-120.715170">
        <ele>66.438</ele>
        <time>2018-12-28T08:57:40Z</time>
      </trkpt>
      <trkpt lat="37.806040" lon="-120.715100">
        <ele>66.372</ele>
        <time>2018-12-28T08:58:00Z</time>
      </trkpt>
      <trkpt lat="37.806090" lon="-120.715020">
        <ele>66.427</ele>
        <time>2018-12-28T08:58:20Z</time>
      </trkpt>
      <trkpt lat="37.806140" lon="-120.714950">
        <ele>66.468</ele>
        <time>2018-12-28T08:58:40Z</time>
      </trkpt>
      <trkpt lat="37.806190" lon="-120.714870">
        <ele>66.414</ele>
        <time>2018-12-28T08:59:00Z</time>
      </trkpt>
      <trkpt lat="37.806250" lon="-120.714770">
        <ele>66.508</ele>
        <time>2018-12-28T08:59:20Z</time>
      </trkpt>
      <trkpt lat="37.806330" lon="-120.714630">
        <ele>66.625</ele>
        <time>2018-12-28T08:59:40Z</time>
      </trkpt>
      <trkpt lat="37.806390" lon="-120.714520">
        <ele>66.863</ele>
        <time>2018-12-28T09:00:00Z</time>
      </trkpt>
      <trkpt lat="37.806440" lon="-120.714400">
        <ele>67.258</ele>
        <time>2018-12-28T09:00:20Z</time>
      </trkpt>
      <trkpt lat="37.806500" lon="-120.714270">
        <ele>67.637</ele>
        <time>2018-12-28T09:00:40Z</time>
      </trkpt>
      <trkpt lat="37.806530" lon="-120.714190">
        <ele>67.821</ele>
        <time>2018-12-28T09:01:00Z</time>
      </trkpt>
      <trkpt lat="37.806580" lon="-120.714020">
        <ele>68.267</ele>
        <time>2018-12-28T09:01:20Z</time>
      </trkpt>
      <trkpt lat="37.806640" lon="-120.713840">
        <ele>69.394</ele>
        <time>2018-12-28T09:01:40Z</time>
      </trkpt>
      <trkpt lat="37.806680" lon="-120.713680">
        <ele>70.328</ele>
        <time>2018-12-28T09:02:00Z</time>
      </trkpt>
      <trkpt lat="37.806720" lon="-120.713510">
        <ele>71.352</ele>
        <time>2018-12-28T09:02:20Z</time>
      </trkpt>
      <trkpt lat="37.806750" lon="-120.713340">
        <ele>72.253</ele>
        <time>2018-12-28T09:02:40Z</time>
      </trkpt>
      <trkpt lat="37.806760" lon="-120.713160">
        <ele>73.108</ele>
        <time>2018-12-28T09:03:00Z</time>
      </trkpt>
      <trkpt lat="37.806770" lon="-120.712990">
        <ele>73.308</ele>
        <time>2018-12-28T09:03:20Z</time>
      </trkpt>
      <trkpt lat="37.806780" lon="-120.712810">
        <ele>73.878</ele>
        <time>2018-12-28T09:03:40Z</time>
      </trkpt>
      <trkpt lat="37.806780" lon="-120.712620">
        <ele>74.556</ele>
        <time>2018-12-28T09:04:00Z</time>
      </trkpt>
      <trkpt lat="37.806770" lon="-120.712470">
        <ele>75.111</ele>
        <time>2018-12-28T09:04:20Z</time>
      </trkpt>
      <trkpt lat="37.806760" lon="-120.712320">
        <ele>75.980</ele>
        <time>2018-12-28T09:04:40Z</time>
      </trkpt>
      <trkpt lat="37.806750" lon="-120.712190">
        <ele>76.954</ele>
        <time>2018-12-28T09:05:00Z</time>
      </trkpt>
      <trkpt lat="37.806730" lon="-120.712030">
        <ele>78.030</ele>
        <time>2018-12-28T09:05:20Z</time>
      </trkpt>
      <trkpt lat="37.806700" lon="-120.711870">
        <ele>78.787</ele>
        <time>2018-12-28T09:05:40Z</time>
      </trkpt>
      <trkpt lat="37.806630" lon="-120.711440">
        <ele>79.311</ele>
        <time>2018-12-28T09:06:00Z</time>
      </trkpt>
      <trkpt lat="37.806570" lon="-120.711100">
        <ele>79.577</ele>
        <time>2018-12-28T09:06:20Z</time>
      </trkpt>
      <trkpt lat="37.806530" lon="-120.710840">
        <ele>79.861</ele>
        <time>2018-12-28T09:06:40Z</time>
      </trkpt>
      <trkpt lat="37.806500" lon="-120.710700">
        <ele>80.127</ele>
        <time>2018-12-28T09:07:00Z</time>
      </trkpt>
      <trkpt lat="37.806470" lon="-120.710570">
        <ele>80.808</ele>
        <time>2018-12-28T09:07:20Z</time>
      </trkpt>
      <trkpt lat="37.806440" lon="-120.710460">
        <ele>81.590</ele>
        <time>2018-12-28T09:07:40Z</time>
      </trkpt>
      <trkpt lat="37.806420" lon="-120.710390">
        <ele>81.878</ele>
        <time>2018-12-28T09:08:00Z</time>
      </trkpt>
      <trkpt lat="37.806380" lon="-120.710270">
        <ele>81.873</ele>
        <time>2018-12-28T09:08:20Z</time>
      </trkpt>
      <trkpt lat="37.806350" lon="-120.710190">
        <ele>82.082</ele>
        <time>2018-12-28T09:08:40Z</time>
      </trkpt>
      <trkpt lat="37.806310" lon="-120.710090">
        <ele>82.176</ele>
        <time>2018-12-28T09:09:00Z</time>
      </trkpt>
      <trkpt lat="37.806230" lon="-120.709910">
        <ele>82.352</ele>
        <time>2018-12-28T09:09:20Z</time>
      </trkpt>
      <trkpt lat="37.806190" lon="-120.709810">
        <ele>82.749</ele>
        <time>2018-12-28T09:09:40Z</time>
      </trkpt>
      <trkpt lat="37.806110" lon="-120.709670">
        <ele>83.883</ele>
        <time>2018-12-28T09:10:00Z</time>
      </trkpt>
      <trkpt lat="37.806010" lon="-120.709480">
        <ele>85.045</ele>
        <time>2018-12-28T09:10:20Z</time>
      </trkpt>
      <trkpt lat="37.805860" lon="-120.709240">
        <ele>85.547</ele>
        <time>2018-12-28T09:10:40Z</time>
      </trkpt>
      <trkpt lat="37.805650" lon="-120.708930">
        <ele>85.811</ele>
        <time>2018-12-28T09:11:00Z</time>
      </trkpt>
      <trkpt lat="37.805420" lon="-120.708580">
        <ele>86.108</ele>
        <time>2018-12-28T09:11:20Z</time>
      </trkpt>
      <trkpt lat="37.805270" lon="-120.708330">
        <ele>86.267</ele>
        <time>2018-12-28T09:11:40Z</time>
      </trkpt>
      <trkpt lat="37.805210" lon="-120.708220">
        <ele>86.245</ele>
        <time>2018-12-28T09:12:00Z</time>
      </trkpt>
      <trkpt lat="37.805160" lon="-120.708130">
        <ele>86.240</ele>
        <time>2018-12-28T09:12:20Z</time>
      </trkpt>
      <trkpt lat="37.805130" lon="-120.708060">
        <ele>86.229</ele>
        <time>2018-12-28T09:12:40Z</time>
      </trkpt>
      <trkpt lat="37.805090" lon="-120.707980">
        <ele>86.243</ele>
        <time>2018-12-28T09:13:00Z</time>
      </trkpt>
      <trkpt lat="37.805050" lon="-120.707870">
        <ele>86.329</ele>
        <time>2018-12-28T09:13:20Z</time>
      </trkpt>
      <trkpt lat="37.805010" lon="-120.707750">
        <ele>86.516</ele>
        <time>2018-12-28T09:13:40Z</time>
      </trkpt>
      <trkpt lat="37.804960" lon="-120.707620">
        <ele>86.710</ele>
        <time>2018-12-28T09:14:00Z</time>
      </trkpt>
      <trkpt lat="37.804900" lon="-120.707450">
        <ele>86.959</ele>
        <time>2018-12-28T09:14:20Z</time>
      </trkpt>
      <trkpt lat="37.804810" lon="-120.707170">
        <ele>86.903</ele>
        <time>2018-12-28T09:14:40Z</time>
      </trkpt>
      <trkpt lat="37.804720" lon="-120.706880">
        <ele>86.723</ele>
        <time>2018-12-28T09:15:00Z</time>
      </trkpt>
      <trkpt lat="37.804670" lon="-120.706660">
        <ele>86.508</ele>
        <time>2018-12-28T09:15:20Z</time>
      </trkpt>
      <trkpt lat="37.804600" lon="-120.706410">
        <ele>86.768</ele>
        <time>2018-12-28T09:15:40Z</time>
      </trkpt>
      <trkpt lat="37.804590" lon="-120.706330">
        <ele>86.886</ele>
        <time>2018-12-28T09:16:00Z</time>
      </trkpt>
      <trkpt lat="37.804570" lon="-120.706240">
        <ele>86.961</ele>
        <time>2018-12-28T09:16:20Z</time>
      </trkpt>
      <trkpt lat="37.804550" lon="-120.706060">
        <ele>87.590</ele>
        <time>2018-12-28T09:16:40Z</time>
      </trkpt>
      <trkpt lat="37.804530" lon="-120.705920">
        <ele>88.054</ele>
        <time>2018-12-28T09:17:00Z</time>
      </trkpt>
      <trkpt lat="37.804520" lon="-120.705770">
        <ele>88.670</ele>
        <time>2018-12-28T09:17:20Z</time>
      </trkpt>
      <trkpt lat="37.804520" lon="-120.705480">
        <ele>89.567</ele>
        <time>2018-12-28T09:17:40Z</time>
      </trkpt>
      <trkpt lat="37.804520" lon="-120.705250">
        <ele>90.271</ele>
        <time>2018-12-28T09:18:00Z</time>
      </trkpt>
      <trkpt lat="37.804520" lon="-120.705060">
        <ele>91.078</ele>
        <time>2018-12-28T09:18:20Z</time>
      </trkpt>
      <trkpt lat="37.804510" lon="-120.704790">
        <ele>91.833</ele>
        <time>2018-12-28T09:18:40Z</time>
      </trkpt>
      <trkpt lat="37.804510" lon="-120.704660">
        <ele>92.226</ele>
        <time>2018-12-28T09:19:00Z</time>
      </trkpt>
      <trkpt lat="37.804520" lon="-120.704460">
        <ele>92.308</ele>
        <time>2018-12-28T09:19:20Z</time>
      </trkpt>
      <trkpt lat="37.804540" lon="-120.704260">
        <ele>91.910</ele>
        <time>2018-12-28T09:19:40Z</time>
      </trkpt>
      <trkpt lat="37.804550" lon="-120.704140">
        <ele>91.638</ele>
        <time>2018-12-28T09:20:00Z</time>
      </trkpt>
      <trkpt lat="37.804570" lon="-120.704010">
        <ele>91.243</ele>
        <time>2018-12-28T09:20:20Z</time>
      </trkpt>
      <trkpt lat="37.804600" lon="-120.703850">
        <ele>90.952</ele>
        <time>2018-12-28T09:20:40Z</time>
      </trkpt>
      <trkpt lat="37.804650" lon="-120.703610">
        <ele>90.576</ele>
        <time>2018-12-28T09:21:00Z</time>
      </trkpt>
      <trkpt lat="37.804750" lon="-120.703200">
        <ele>89.172</ele>
        <time>2018-12-28T09:21:20Z</time>
      </trkpt>
      <trkpt lat="37.804830" lon="-120.702870">
        <ele>87.499</ele>
        <time>2018-12-28T09:21:40Z</time>
      </trkpt>
      <trkpt lat="37.805070" lon="-120.701890">
        <ele>86.123</ele>
        <time>2018-12-28T09:22:00Z</time>
      </trkpt>
      <trkpt lat="37.805170" lon="-120.701480">
        <ele>87.319</ele>
        <time>2018-12-28T09:22:20Z</time>
      </trkpt>
      <trkpt lat="37.805210" lon="-120.701330">
        <ele>87.609</ele>
        <time>2018-12-28T09:22:40Z</time>
      </trkpt>
      <trkpt lat="37.805230" lon="-120.701260">
        <ele>87.719</ele>
        <time>2018-12-28T09:23:00Z</time>
      </trkpt>
      <trkpt lat="37.805260" lon="-120.701130">
        <ele>87.808</ele>
        <time>2018-12-28T09:23:20Z</time>
      </trkpt>
      <trkpt lat="37.805330" lon="-120.700940">
        <ele>87.974</ele>
        <time>2018-12-28T09:23:40Z</time>
      </trkpt>
      <trkpt lat="37.805390" lon="-120.700780">
        <ele>87.462</ele>
        <time>2018-12-28T09:24:00Z</time>
      </trkpt>
      <trkpt lat="37.805430" lon="-120.700680">
        <ele>87.047</ele>
        <time>2018-12-28T09:24:20Z</time>
      </trkpt>
      <trkpt lat="37.805530" lon="-120.700470">
        <ele>85.916</ele>
        <time>2018-12-28T09:24:40Z</time>
      </trkpt>
      <trkpt lat="37.805770" lon="-120.699930">
        <ele>83.030</ele>
        <time>2018-12-28T09:25:00Z</time>
      </trkpt>
      <trkpt lat="37.806130" lon="-120.699110">
        <ele>79.496</ele>
        <time>2018-12-28T09:25:20Z</time>
      </trkpt>
      <trkpt lat="37.806450" lon="-120.698360">
        <ele>79.583</ele>
        <time>2018-12-28T09:25:40Z</time>
      </trkpt>
      <trkpt lat="37.806870" lon="-120.697430">
        <ele>84.347</ele>
        <time>2018-12-28T09:26:00Z</time>
      </trkpt>
      <trkpt lat="37.807010" lon="-120.697120">
        <ele>85.425</ele>
        <time>2018-12-28T09:26:20Z</time>
      </trkpt>
      <trkpt lat="37.807140" lon="-120.696800">
        <ele>85.426</ele>
        <time>2018-12-28T09:26:40Z</time>
      </trkpt>
      <trkpt lat="37.807250" lon="-120.696540">
        <ele>85.408</ele>
        <time>2018-12-28T09:27:00Z</time>
      </trkpt>
      <trkpt lat="37.807290" lon="-120.696440">
        <ele>85.308</ele>
        <time>2018-12-28T09:27:20Z</time>
      </trkpt>
      <trkpt lat="37.807330" lon="-120.696330">
        <ele>85.285</ele>
        <time>2018-12-28T09:27:40Z</time>
      </trkpt>
      <trkpt lat="37.807410" lon="-120.696080">
        <ele>85.353</ele>
        <time>2018-12-28T09:28:00Z</time>
      </trkpt>
      <trkpt lat="37.807480" lon="-120.695840">
        <ele>85.898</ele>
        <time>2018-12-28T09:28:20Z</time>
      </trkpt>
      <trkpt lat="37.807520" lon="-120.695680">
        <ele>86.117</ele>
        <time>2018-12-28T09:28:40Z</time>
      </trkpt>
      <trkpt lat="37.807560" lon="-120.695500">
        <ele>87.021</ele>
        <time>2018-12-28T09:29:00Z</time>
      </trkpt>
      <trkpt lat="37.807610" lon="-120.695240">
        <ele>88.817</ele>
        <time>2018-12-28T09:29:20Z</time>
      </trkpt>
      <trkpt lat="37.807640" lon="-120.695060">
        <ele>89.914</ele>
        <time>2018-12-28T09:29:40Z</time>
      </trkpt>
      <trkpt lat="37.807670" lon="-120.694860">
        <ele>91.018</ele>
        <time>2018-12-28T09:30:00Z</time>
      </trkpt>
      <trkpt lat="37.807690" lon="-120.694680">
        <ele>92.649</ele>
        <time>2018-12-28T09:30:20Z</time>
      </trkpt>
      <trkpt lat="37.807710" lon="-120.694560">
        <ele>93.902</ele>
        <time>2018-12-28T09:30:40Z</time>
      </trkpt>
      <trkpt lat="37.807720" lon="-120.694430">
        <ele>95.522</ele>
        <time>2018-12-28T09:31:00Z</time>
      </trkpt>
      <trkpt lat="37.807720" lon="-120.694300">
        <ele>96.808</ele>
        <time>2018-12-28T09:31:20Z</time>
      </trkpt>
      <trkpt lat="37.807740" lon="-120.694080">
        <ele>97.867</ele>
        <time>2018-12-28T09:31:40Z</time>
      </trkpt>
      <trkpt lat="37.807740" lon="-120.693820">
        <ele>94.945</ele>
        <time>2018-12-28T09:32:00Z</time>
      </trkpt>
      <trkpt lat="37.807730" lon="-120.693610">
        <ele>93.550</ele>
        <time>2018-12-28T09:32:20Z</time>
      </trkpt>
      <trkpt lat="37.807730" lon="-120.693430">
        <ele>92.649</ele>
        <time>2018-12-28T09:32:40Z</time>
      </trkpt>
      <trkpt lat="37.807720" lon="-120.693270">
        <ele>90.393</ele>
        <time>2018-12-28T09:33:00Z</time>
      </trkpt>
      <trkpt lat="37.807710" lon="-120.693130">
        <ele>88.089</ele>
        <time>2018-12-28T09:33:20Z</time>
      </trkpt>
      <trkpt lat="37.807700" lon="-120.693030">
        <ele>86.276</ele>
        <time>2018-12-28T09:33:40Z</time>
      </trkpt>
      <trkpt lat="37.807690" lon="-120.692930">
        <ele>84.530</ele>
        <time>2018-12-28T09:34:00Z</time>
      </trkpt>
      <trkpt lat="37.807670" lon="-120.692800">
        <ele>84.335</ele>
        <time>2018-12-28T09:34:20Z</time>
      </trkpt>
      <trkpt lat="37.807640" lon="-120.692580">
        <ele>84.486</ele>
        <time>2018-12-28T09:34:40Z</time>
      </trkpt>
      <trkpt lat="37.807620" lon="-120.692470">
        <ele>84.914</ele>
        <time>2018-12-28T09:35:00Z</time>
      </trkpt>
      <trkpt lat="37.807590" lon="-120.692330">
        <ele>85.508</ele>
        <time>2018-12-28T09:35:20Z</time>
      </trkpt>
      <trkpt lat="37.807540" lon="-120.692070">
        <ele>84.236</ele>
        <time>2018-12-28T09:35:40Z</time>
      </trkpt>
      <trkpt lat="37.807500" lon="-120.691900">
        <ele>80.034</ele>
        <time>2018-12-28T09:36:00Z</time>
      </trkpt>
      <trkpt lat="37.807460" lon="-120.691750">
        <ele>77.219</ele>
        <time>2018-12-28T09:36:20Z</time>
      </trkpt>
      <trkpt lat="37.807390" lon="-120.691550">
        <ele>75.768</ele>
        <time>2018-12-28T09:36:40Z</time>
      </trkpt>
      <trkpt lat="37.807300" lon="-120.691250">
        <ele>71.592</ele>
        <time>2018-12-28T09:37:00Z</time>
      </trkpt>
      <trkpt lat="37.807240" lon="-120.691070">
        <ele>69.668</ele>
        <time>2018-12-28T09:37:20Z</time>
      </trkpt>
      <trkpt lat="37.807120" lon="-120.690680">
        <ele>62.965</ele>
        <time>2018-12-28T09:37:40Z</time>
      </trkpt>
      <trkpt lat="37.807050" lon="-120.690480">
        <ele>62.549</ele>
        <time>2018-12-28T09:38:00Z</time>
      </trkpt>
      <trkpt lat="37.806990" lon="-120.690290">
        <ele>63.515</ele>
        <time>2018-12-28T09:38:20Z</time>
      </trkpt>
      <trkpt lat="37.806950" lon="-120.690130">
        <ele>64.065</ele>
        <time>2018-12-28T09:38:40Z</time>
      </trkpt>
      <trkpt lat="37.806900" lon="-120.689920">
        <ele>64.511</ele>
        <time>2018-12-28T09:39:00Z</time>
      </trkpt>
      <trkpt lat="37.806860" lon="-120.689700">
        <ele>63.508</ele>
        <time>2018-12-28T09:39:20Z</time>
      </trkpt>
      <trkpt lat="37.806830" lon="-120.689540">
        <ele>62.424</ele>
        <time>2018-12-28T09:39:40Z</time>
      </trkpt>
      <trkpt lat="37.806800" lon="-120.689350">
        <ele>61.972</ele>
        <time>2018-12-28T09:40:00Z</time>
      </trkpt>
      <trkpt lat="37.806780" lon="-120.689120">
        <ele>61.777</ele>
        <time>2018-12-28T09:40:20Z</time>
      </trkpt>
      <trkpt lat="37.806760" lon="-120.688900">
        <ele>61.776</ele>
        <time>2018-12-28T09:40:40Z</time>
      </trkpt>
      <trkpt lat="37.806760" lon="-120.688630">
        <ele>61.450</ele>
        <time>2018-12-28T09:41:00Z</time>
      </trkpt>
      <trkpt lat="37.806760" lon="-120.688350">
        <ele>60.166</ele>
        <time>2018-12-28T09:41:20Z</time>
      </trkpt>
      <trkpt lat="37.806780" lon="-120.687860">
        <ele>56.163</ele>
        <time>2018-12-28T09:41:40Z</time>
      </trkpt>
      <trkpt lat="37.806800" lon="-120.687380">
        <ele>55.527</ele>
        <time>2018-12-28T09:42:00Z</time>
      </trkpt>
      <trkpt lat="37.806800" lon="-120.686960">
        <ele>54.036</ele>
        <time>2018-12-28T09:42:20Z</time>
      </trkpt>
      <trkpt lat="37.806790" lon="-120.686690">
        <ele>52.017</ele>
        <time>2018-12-28T09:42:40Z</time>
      </trkpt>
      <trkpt lat="37.806780" lon="-120.686520">
        <ele>50.218</ele>
        <time>2018-12-28T09:43:00Z</time>
      </trkpt>
      <trkpt lat="37.806760" lon="-120.686340">
        <ele>50.008</ele>
        <time>2018-12-28T09:43:20Z</time>
      </trkpt>
      <trkpt lat="37.806750" lon="-120.686180">
        <ele>50.856</ele>
        <time>2018-12-28T09:43:40Z</time>
      </trkpt>
      <trkpt lat="37.806730" lon="-120.686040">
        <ele>52.324</ele>
        <time>2018-12-28T09:44:00Z</time>
      </trkpt>
      <trkpt lat="37.806700" lon="-120.685840">
        <ele>54.049</ele>
        <time>2018-12-28T09:44:20Z</time>
      </trkpt>
      <trkpt lat="37.806680" lon="-120.685730">
        <ele>55.288</ele>
        <time>2018-12-28T09:44:40Z</time>
      </trkpt>
      <trkpt lat="37.806650" lon="-120.685580">
        <ele>55.832</ele>
        <time>2018-12-28T09:45:00Z</time>
      </trkpt>
      <trkpt lat="37.806590" lon="-120.685390">
        <ele>55.968</ele>
        <time>2018-12-28T09:45:20Z</time>
      </trkpt>
      <trkpt lat="37.806540" lon="-120.685220">
        <ele>56.145</ele>
        <time>2018-12-28T09:45:40Z</time>
      </trkpt>
      <trkpt lat="37.806480" lon="-120.685030">
        <ele>56.599</ele>
        <time>2018-12-28T09:46:00Z</time>
      </trkpt>
      <trkpt lat="37.806420" lon="-120.684850">
        <ele>56.829</ele>
        <time>2018-12-28T09:46:20Z</time>
      </trkpt>
      <trkpt lat="37.806340" lon="-120.684660">
        <ele>57.000</ele>
        <time>2018-12-28T09:46:40Z</time>
      </trkpt>
      <trkpt lat="37.806250" lon="-120.684450">
        <ele>57.320</ele>
        <time>2018-12-28T09:47:00Z</time>
      </trkpt>
      <trkpt lat="37.806140" lon="-120.684230">
        <ele>57.508</ele>
        <time>2018-12-28T09:47:20Z</time>
      </trkpt>
      <trkpt lat="37.806040" lon="-120.684030">
        <ele>57.615</ele>
        <time>2018-12-28T09:47:40Z</time>
      </trkpt>
      <trkpt lat="37.804410" lon="-120.680920">
        <ele>63.093</ele>
        <time>2018-12-28T09:48:00Z</time>
      </trkpt>
      <trkpt lat="37.804010" lon="-120.680160">
        <ele>65.138</ele>
        <time>2018-12-28T09:48:20Z</time>
      </trkpt>
      <trkpt lat="37.803850" lon="-120.679850">
        <ele>65.947</ele>
        <time>2018-12-28T09:48:40Z</time>
      </trkpt>
      <trkpt lat="37.803790" lon="-120.679720">
        <ele>66.211</ele>
        <time>2018-12-28T09:49:00Z</time>
      </trkpt>
      <trkpt lat="37.803700" lon="-120.679530">
        <ele>66.717</ele>
        <time>2018-12-28T09:49:20Z</time>
      </trkpt>
      <trkpt lat="37.803630" lon="-120.679330">
        <ele>67.194</ele>
        <time>2018-12-28T09:49:40Z</time>
      </trkpt>
      <trkpt lat="37.803570" lon="-120.679160">
        <ele>67.558</ele>
        <time>2018-12-28T09:50:00Z</time>
      </trkpt>
      <trkpt lat="37.803510" lon="-120.678990">
        <ele>68.059</ele>
        <time>2018-12-28T09:50:20Z</time>
      </trkpt>
      <trkpt lat="37.803480" lon="-120.678860">
        <ele>68.403</ele>
        <time>2018-12-28T09:50:40Z</time>
      </trkpt>
      <trkpt lat="37.803450" lon="-120.678770">
        <ele>68.723</ele>
        <time>2018-12-28T09:51:00Z</time>
      </trkpt>
      <trkpt lat="37.803420" lon="-120.678640">
        <ele>69.208</ele>
        <time>2018-12-28T09:51:20Z</time>
      </trkpt>
      <trkpt lat="37.803400" lon="-120.678550">
        <ele>69.528</ele>
        <time>2018-12-28T09:51:40Z</time>
      </trkpt>
      <trkpt lat="37.803360" lon="-120.678390">
        <ele>70.166</ele>
        <time>2018-12-28T09:52:00Z</time>
      </trkpt>
      <trkpt lat="37.803340" lon="-120.678270">
        <ele>70.681</ele>
        <time>2018-12-28T09:52:20Z</time>
      </trkpt>
      <trkpt lat="37.803320" lon="-120.678140">
        <ele>71.290</ele>
        <time>2018-12-28T09:52:40Z</time>
      </trkpt>
      <trkpt lat="37.803310" lon="-120.678040">
        <ele>71.744</ele>
        <time>2018-12-28T09:53:00Z</time>
      </trkpt>
      <trkpt lat="37.803290" lon="-120.677940">
        <ele>72.120</ele>
        <time>2018-12-28T09:53:20Z</time>
      </trkpt>
      <trkpt lat="37.803280" lon="-120.677820">
        <ele>72.647</ele>
        <time>2018-12-28T09:53:40Z</time>
      </trkpt>
      <trkpt lat="37.803260" lon="-120.677660">
        <ele>73.321</ele>
        <time>2018-12-28T09:54:00Z</time>
      </trkpt>
      <trkpt lat="37.803250" lon="-120.677500">
        <ele>74.154</ele>
        <time>2018-12-28T09:54:20Z</time>
      </trkpt>
      <trkpt lat="37.803240" lon="-120.677270">
        <ele>75.756</ele>
        <time>2018-12-28T09:54:40Z</time>
      </trkpt>
      <trkpt lat="37.803240" lon="-120.677020">
        <ele>77.711</ele>
        <time>2018-12-28T09:55:00Z</time>
      </trkpt>
      <trkpt lat="37.803250" lon="-120.676840">
        <ele>79.108</ele>
        <time>2018-12-28T09:55:20Z</time>
      </trkpt>
      <trkpt lat="37.803250" lon="-120.676740">
        <ele>79.498</ele>
        <time>2018-12-28T09:55:40Z</time>
      </trkpt>
      <trkpt lat="37.803260" lon="-120.676620">
        <ele>79.696</ele>
        <time>2018-12-28T09:56:00Z</time>
      </trkpt>
      <trkpt lat="37.803280" lon="-120.676450">
        <ele>80.161</ele>
        <time>2018-12-28T09:56:20Z</time>
      </trkpt>
      <trkpt lat="37.803290" lon="-120.676340">
        <ele>80.580</ele>
        <time>2018-12-28T09:56:40Z</time>
      </trkpt>
      <trkpt lat="37.803310" lon="-120.676150">
        <ele>81.654</ele>
        <time>2018-12-28T09:57:00Z</time>
      </trkpt>
      <trkpt lat="37.803360" lon="-120.675890">
        <ele>83.920</ele>
        <time>2018-12-28T09:57:20Z</time>
      </trkpt>
      <trkpt lat="37.803390" lon="-120.675720">
        <ele>86.117</ele>
        <time>2018-12-28T09:57:40Z</time>
      </trkpt>
      <trkpt lat="37.803420" lon="-120.675580">
        <ele>86.771</ele>
        <time>2018-12-28T09:58:00Z</time>
      </trkpt>
      <trkpt lat="37.803460" lon="-120.675430">
        <ele>87.341</ele>
        <time>2018-12-28T09:58:20Z</time>
      </trkpt>
      <trkpt lat="37.803500" lon="-120.675310">
        <ele>87.381</ele>
        <time>2018-12-28T09:58:40Z</time>
      </trkpt>
      <trkpt lat="37.803550" lon="-120.675120">
        <ele>87.909</ele>
        <time>2018-12-28T09:59:00Z</time>
      </trkpt>
      <trkpt lat="37.803600" lon="-120.674990">
        <ele>88.408</ele>
        <time>2018-12-28T09:59:20Z</time>
      </trkpt>
      <trkpt lat="37.803660" lon="-120.674840">
        <ele>89.687</ele>
        <time>2018-12-28T09:59:40Z</time>
      </trkpt>
      <trkpt lat="37.803780" lon="-120.674550">
        <ele>89.655</ele>
        <time>2018-12-28T10:00:00Z</time>
      </trkpt>
      <trkpt lat="37.803840" lon="-120.674410">
        <ele>89.870</ele>
        <time>2018-12-28T10:00:20Z</time>
      </trkpt>
      <trkpt lat="37.803950" lon="-120.674210">
        <ele>90.589</ele>
        <time>2018-12-28T10:00:40Z</time>
      </trkpt>
      <trkpt lat="37.804090" lon="-120.673940">
        <ele>91.063</ele>
        <time>2018-12-28T10:01:00Z</time>
      </trkpt>
      <trkpt lat="37.804720" lon="-120.672810">
        <ele>93.019</ele>
        <time>2018-12-28T10:01:20Z</time>
      </trkpt>
      <trkpt lat="37.805160" lon="-120.672020">
        <ele>94.096</ele>
        <time>2018-12-28T10:01:40Z</time>
      </trkpt>
      <trkpt lat="37.806650" lon="-120.669290">
        <ele>94.630</ele>
        <time>2018-12-28T10:02:00Z</time>
      </trkpt>
      <trkpt lat="37.807670" lon="-120.667440">
        <ele>98.868</ele>
        <time>2018-12-28T10:02:20Z</time>
      </trkpt>
      <trkpt lat="37.807790" lon="-120.667230">
        <ele>99.142</ele>
        <time>2018-12-28T10:02:40Z</time>
      </trkpt>
      <trkpt lat="37.807880" lon="-120.667070">
        <ele>99.326</ele>
        <time>2018-12-28T10:03:00Z</time>
      </trkpt>
      <trkpt lat="37.808000" lon="-120.666890">
        <ele>99.408</ele>
        <time>2018-12-28T10:03:20Z</time>
      </trkpt>
      <trkpt lat="37.808210" lon="-120.666570">
        <ele>99.759</ele>
        <time>2018-12-28T10:03:40Z</time>
      </trkpt>
      <trkpt lat="37.808440" lon="-120.666240">
        <ele>99.967</ele>
        <time>2018-12-28T10:04:00Z</time>
      </trkpt>
      <trkpt lat="37.808530" lon="-120.666130">
        <ele>100.032</ele>
        <time>2018-12-28T10:04:20Z</time>
      </trkpt>
      <trkpt lat="37.808620" lon="-120.666010">
        <ele>100.171</ele>
        <time>2018-12-28T10:04:40Z</time>
      </trkpt>
      <trkpt lat="37.808720" lon="-120.665890">
        <ele>100.285</ele>
        <time>2018-12-28T10:05:00Z</time>
      </trkpt>
      <trkpt lat="37.808740" lon="-120.665870">
        <ele>100.281</ele>
        <time>2018-12-28T10:05:20Z</time>
      </trkpt>
      <trkpt lat="37.809100" lon="-120.665410">
        <ele>100.448</ele>
        <time>2018-12-28T10:05:40Z</time>
      </trkpt>
      <trkpt lat="37.809340" lon="-120.665130">
        <ele>100.692</ele>
        <time>2018-12-28T10:06:00Z</time>
      </trkpt>
      <trkpt lat="37.810420" lon="-120.663780">
        <ele>99.969</ele>
        <time>2018-12-28T10:06:20Z</time>
      </trkpt>
      <trkpt lat="37.811240" lon="-120.662820">
        <ele>102.404</ele>
        <time>2018-12-28T10:06:40Z</time>
      </trkpt>
      <trkpt lat="37.812020" lon="-120.661870">
        <ele>105.424</ele>
        <time>2018-12-28T10:07:00Z</time>
      </trkpt>
      <trkpt lat="37.812110" lon="-120.661760">
        <ele>105.308</ele>
        <time>2018-12-28T10:07:20Z</time>
      </trkpt>
      <trkpt lat="37.812190" lon="-120.661650">
        <ele>105.489</ele>
        <time>2018-12-28T10:07:40Z</time>
      </trkpt>
      <trkpt lat="37.812310" lon="-120.661490">
        <ele>105.427</ele>
        <time>2018-12-28T10:08:00Z</time>
      </trkpt>
      <trkpt lat="37.812490" lon="-120.661240">
        <ele>103.442</ele>
        <time>2018-12-28T10:08:20Z</time>
      </trkpt>
      <trkpt lat="37.812600" lon="-120.661080">
        <ele>102.671</ele>
        <time>2018-12-28T10:08:40Z</time>
      </trkpt>
      <trkpt lat="37.812770" lon="-120.660820">
        <ele>102.915</ele>
        <time>2018-12-28T10:09:00Z</time>
      </trkpt>
      <trkpt lat="37.812850" lon="-120.660690">
        <ele>103.051</ele>
        <time>2018-12-28T10:09:20Z</time>
      </trkpt>
      <trkpt lat="37.812970" lon="-120.660470">
        <ele>102.528</ele>
        <time>2018-12-28T10:09:40Z</time>
      </trkpt>
      <trkpt lat="37.813120" lon="-120.660210">
        <ele>101.172</ele>
        <time>2018-12-28T10:10:00Z</time>
      </trkpt>
      <trkpt lat="37.813260" lon="-120.659940">
        <ele>97.867</ele>
        <time>2018-12-28T10:10:20Z</time>
      </trkpt>
      <trkpt lat="37.813320" lon="-120.659800">
        <ele>96.681</ele>
        <time>2018-12-28T10:10:40Z</time>
      </trkpt>
      <trkpt lat="37.813410" lon="-120.659610">
        <ele>97.319</ele>
        <time>2018-12-28T10:11:00Z</time>
      </trkpt>
      <trkpt lat="37.813500" lon="-120.659400">
        <ele>97.908</ele>
        <time>2018-12-28T10:11:20Z</time>
      </trkpt>
      <trkpt lat="37.813550" lon="-120.659290">
        <ele>97.879</ele>
        <time>2018-12-28T10:11:40Z</time>
      </trkpt>
      <trkpt lat="37.813610" lon="-120.659140">
        <ele>97.757</ele>
        <time>2018-12-28T10:12:00Z</time>
      </trkpt>
      <trkpt lat="37.813830" lon="-120.658620">
        <ele>99.572</ele>
        <time>2018-12-28T10:12:20Z</time>
      </trkpt>
      <trkpt lat="37.814360" lon="-120.657330">
        <ele>101.221</ele>
        <time>2018-12-28T10:12:40Z</time>
      </trkpt>
      <trkpt lat="37.814800" lon="-120.656480">
        <ele>101.355</ele>
        <time>2018-12-28T10:13:00Z</time>
      </trkpt>
      <trkpt lat="37.814900" lon="-120.656300">
        <ele>102.041</ele>
        <time>2018-12-28T10:13:20Z</time>
      </trkpt>
      <trkpt lat="37.815090" lon="-120.655970">
        <ele>103.598</ele>
        <time>2018-12-28T10:13:40Z</time>
      </trkpt>
      <trkpt lat="37.815340" lon="-120.655580">
        <ele>109.462</ele>
        <time>2018-12-28T10:14:00Z</time>
      </trkpt>
      <trkpt lat="37.815460" lon="-120.655390">
        <ele>111.649</ele>
        <time>2018-12-28T10:14:20Z</time>
      </trkpt>
      <trkpt lat="37.815650" lon="-120.655110">
        <ele>116.202</ele>
        <time>2018-12-28T10:14:40Z</time>
      </trkpt>
      <trkpt lat="37.815960" lon="-120.654700">
        <ele>116.022</ele>
        <time>2018-12-28T10:15:00Z</time>
      </trkpt>
      <trkpt lat="37.816030" lon="-120.654610">
        <ele>114.108</ele>
        <time>2018-12-28T10:15:20Z</time>
      </trkpt>
      <trkpt lat="37.816340" lon="-120.654220">
        <ele>112.867</ele>
        <time>2018-12-28T10:15:40Z</time>
      </trkpt>
      <trkpt lat="37.816640" lon="-120.653870">
        <ele>114.795</ele>
        <time>2018-12-28T10:16:00Z</time>
      </trkpt>
      <trkpt lat="37.816810" lon="-120.653700">
        <ele>117.030</ele>
        <time>2018-12-28T10:16:20Z</time>
      </trkpt>
      <trkpt lat="37.816930" lon="-120.653580">
        <ele>117.049</ele>
        <time>2018-12-28T10:16:40Z</time>
      </trkpt>
      <trkpt lat="37.817020" lon="-120.653480">
        <ele>117.233</ele>
        <time>2018-12-28T10:17:00Z</time>
      </trkpt>
      <trkpt lat="37.818080" lon="-120.652440">
        <ele>122.619</ele>
        <time>2018-12-28T10:17:20Z</time>
      </trkpt>
      <trkpt lat="37.818970" lon="-120.651570">
        <ele>127.556</ele>
        <time>2018-12-28T10:17:40Z</time>
      </trkpt>
      <trkpt lat="37.819200" lon="-120.651340">
        <ele>128.510</ele>
        <time>2018-12-28T10:18:00Z</time>
      </trkpt>
      <trkpt lat="37.819380" lon="-120.651160">
        <ele>129.517</ele>
        <time>2018-12-28T10:18:20Z</time>
      </trkpt>
      <trkpt lat="37.819570" lon="-120.650960">
        <ele>131.287</ele>
        <time>2018-12-28T10:18:40Z</time>
      </trkpt>
      <trkpt lat="37.819660" lon="-120.650840">
        <ele>132.115</ele>
        <time>2018-12-28T10:19:00Z</time>
      </trkpt>
      <trkpt lat="37.819740" lon="-120.650750">
        <ele>132.808</ele>
        <time>2018-12-28T10:19:20Z</time>
      </trkpt>
      <trkpt lat="37.819870" lon="-120.650580">
        <ele>133.894</ele>
        <time>2018-12-28T10:19:40Z</time>
      </trkpt>
      <trkpt lat="37.820060" lon="-120.650300">
        <ele>134.722</ele>
        <time>2018-12-28T10:20:00Z</time>
      </trkpt>
      <trkpt lat="37.820160" lon="-120.650150">
        <ele>134.837</ele>
        <time>2018-12-28T10:20:20Z</time>
      </trkpt>
      <trkpt lat="37.820360" lon="-120.649780">
        <ele>135.566</ele>
        <time>2018-12-28T10:20:40Z</time>
      </trkpt>
      <trkpt lat="37.820450" lon="-120.649590">
        <ele>135.960</ele>
        <time>2018-12-28T10:21:00Z</time>
      </trkpt>
      <trkpt lat="37.820510" lon="-120.649450">
        <ele>136.356</ele>
        <time>2018-12-28T10:21:20Z</time>
      </trkpt>
      <trkpt lat="37.820610" lon="-120.649230">
        <ele>136.873</ele>
        <time>2018-12-28T10:21:40Z</time>
      </trkpt>
      <trkpt lat="37.820690" lon="-120.649000">
        <ele>137.497</ele>
        <time>2018-12-28T10:22:00Z</time>
      </trkpt>
      <trkpt lat="37.820750" lon="-120.648850">
        <ele>137.678</ele>
        <time>2018-12-28T10:22:20Z</time>
      </trkpt>
      <trkpt lat="37.820820" lon="-120.648610">
        <ele>137.833</ele>
        <time>2018-12-28T10:22:40Z</time>
      </trkpt>
      <trkpt lat="37.820870" lon="-120.648450">
        <ele>138.026</ele>
        <time>2018-12-28T10:23:00Z</time>
      </trkpt>
      <trkpt lat="37.820910" lon="-120.648280">
        <ele>138.408</ele>
        <time>2018-12-28T10:23:20Z</time>
      </trkpt>
      <trkpt lat="37.820960" lon="-120.648040">
        <ele>138.470</ele>
        <time>2018-12-28T10:23:40Z</time>
      </trkpt>
      <trkpt lat="37.820990" lon="-120.647920">
        <ele>138.488</ele>
        <time>2018-12-28T10:24:00Z</time>
      </trkpt>
      <trkpt lat="37.821020" lon="-120.647800">
        <ele>138.483</ele>
        <time>2018-12-28T10:24:20Z</time>
      </trkpt>
      <trkpt lat="37.821050" lon="-120.647600">
        <ele>138.612</ele>
        <time>2018-12-28T10:24:40Z</time>
      </trkpt>
      <trkpt lat="37.821090" lon="-120.647390">
        <ele>139.096</ele>
        <time>2018-12-28T10:25:00Z</time>
      </trkpt>
      <trkpt lat="37.821130" lon="-120.647130">
        <ele>139.352</ele>
        <time>2018-12-28T10:25:20Z</time>
      </trkpt>
      <trkpt lat="37.821320" lon="-120.646040">
        <ele>140.539</ele>
        <time>2018-12-28T10:25:40Z</time>
      </trkpt>
      <trkpt lat="37.821420" lon="-120.645500">
        <ele>141.053</ele>
        <time>2018-12-28T10:26:00Z</time>
      </trkpt>
      <trkpt lat="37.821530" lon="-120.644950">
        <ele>141.368</ele>
        <time>2018-12-28T10:26:20Z</time>
      </trkpt>
      <trkpt lat="37.821620" lon="-120.644580">
        <ele>141.042</ele>
        <time>2018-12-28T10:26:40Z</time>
      </trkpt>
      <trkpt lat="37.821750" lon="-120.644100">
        <ele>141.026</ele>
        <time>2018-12-28T10:27:00Z</time>
      </trkpt>
      <trkpt lat="37.821990" lon="-120.643230">
        <ele>140.908</ele>
        <time>2018-12-28T10:27:20Z</time>
      </trkpt>
      <trkpt lat="37.822170" lon="-120.642630">
        <ele>141.219</ele>
        <time>2018-12-28T10:27:40Z</time>
      </trkpt>
      <trkpt lat="37.822180" lon="-120.642490">
        <ele>141.167</ele>
        <time>2018-12-28T10:28:00Z</time>
      </trkpt>
      <trkpt lat="37.822230" lon="-120.642340">
        <ele>141.112</ele>
        <time>2018-12-28T10:28:20Z</time>
      </trkpt>
      <trkpt lat="37.822340" lon="-120.642050">
        <ele>141.041</ele>
        <time>2018-12-28T10:28:40Z</time>
      </trkpt>
      <trkpt lat="37.822410" lon="-120.641840">
        <ele>140.665</ele>
        <time>2018-12-28T10:29:00Z</time>
      </trkpt>
      <trkpt lat="37.822520" lon="-120.641570">
        <ele>139.951</ele>
        <time>2018-12-28T10:29:20Z</time>
      </trkpt>
      <trkpt lat="37.822640" lon="-120.641300">
        <ele>139.368</ele>
        <time>2018-12-28T10:29:40Z</time>
      </trkpt>
      <trkpt lat="37.822730" lon="-120.641100">
        <ele>138.832</ele>
        <time>2018-12-28T10:30:00Z</time>
      </trkpt>
      <trkpt lat="37.822820" lon="-120.640920">
        <ele>138.229</ele>
        <time>2018-12-28T10:30:20Z</time>
      </trkpt>
      <trkpt lat="37.822960" lon="-120.640610">
        <ele>137.200</ele>
        <time>2018-12-28T10:30:40Z</time>
      </trkpt>
      <trkpt lat="37.823130" lon="-120.640290">
        <ele>136.620</ele>
        <time>2018-12-28T10:31:00Z</time>
      </trkpt>
      <trkpt lat="37.823320" lon="-120.639920">
        <ele>135.408</ele>
        <time>2018-12-28T10:31:20Z</time>
      </trkpt>
      <trkpt lat="37.823590" lon="-120.639470">
        <ele>136.555</ele>
        <time>2018-12-28T10:31:40Z</time>
      </trkpt>
      <trkpt lat="37.823870" lon="-120.639040">
        <ele>135.243</ele>
        <time>2018-12-28T10:32:00Z</time>
      </trkpt>
      <trkpt lat="37.824000" lon="-120.638860">
        <ele>135.958</ele>
        <time>2018-12-28T10:32:20Z</time>
      </trkpt>
      <trkpt lat="37.824190" lon="-120.638590">
        <ele>135.997</ele>
        <time>2018-12-28T10:32:40Z</time>
      </trkpt>
      <trkpt lat="37.824310" lon="-120.638430">
        <ele>136.161</ele>
        <time>2018-12-28T10:33:00Z</time>
      </trkpt>
      <trkpt lat="37.824460" lon="-120.638250">
        <ele>136.027</ele>
        <time>2018-12-28T10:33:20Z</time>
      </trkpt>
      <trkpt lat="37.824620" lon="-120.638040">
        <ele>136.594</ele>
        <time>2018-12-28T10:33:40Z</time>
      </trkpt>
      <trkpt lat="37.825130" lon="-120.637440">
        <ele>137.088</ele>
        <time>2018-12-28T10:34:00Z</time>
      </trkpt>
      <trkpt lat="37.825620" lon="-120.636860">
        <ele>137.967</ele>
        <time>2018-12-28T10:34:20Z</time>
      </trkpt>
      <trkpt lat="37.826420" lon="-120.635900">
        <ele>139.981</ele>
        <time>2018-12-28T10:34:40Z</time>
      </trkpt>
      <trkpt lat="37.827560" lon="-120.634540">
        <ele>139.619</ele>
        <time>2018-12-28T10:35:00Z</time>
      </trkpt>
      <trkpt lat="37.827950" lon="-120.634070">
        <ele>140.208</ele>
        <time>2018-12-28T10:35:20Z</time>
      </trkpt>
      <trkpt lat="37.828340" lon="-120.633590">
        <ele>140.239</ele>
        <time>2018-12-28T10:35:40Z</time>
      </trkpt>
      <trkpt lat="37.829160" lon="-120.632640">
        <ele>143.777</ele>
        <time>2018-12-28T10:36:00Z</time>
      </trkpt>
      <trkpt lat="37.829360" lon="-120.632400">
        <ele>143.782</ele>
        <time>2018-12-28T10:36:20Z</time>
      </trkpt>
      <trkpt lat="37.829540" lon="-120.632190">
        <ele>144.721</ele>
        <time>2018-12-28T10:36:40Z</time>
      </trkpt>
      <trkpt lat="37.830010" lon="-120.631620">
        <ele>143.835</ele>
        <time>2018-12-28T10:37:00Z</time>
      </trkpt>
      <trkpt lat="37.830310" lon="-120.631250">
        <ele>143.931</ele>
        <time>2018-12-28T10:37:20Z</time>
      </trkpt>
      <trkpt lat="37.830690" lon="-120.630800">
        <ele>145.198</ele>
        <time>2018-12-28T10:37:40Z</time>
      </trkpt>
      <trkpt lat="37.830990" lon="-120.630420">
        <ele>144.832</ele>
        <time>2018-12-28T10:38:00Z</time>
      </trkpt>
      <trkpt lat="37.831260" lon="-120.630090">
        <ele>144.685</ele>
        <time>2018-12-28T10:38:20Z</time>
      </trkpt>
      <trkpt lat="37.831430" lon="-120.629880">
        <ele>144.289</ele>
        <time>2018-12-28T10:38:40Z</time>
      </trkpt>
      <trkpt lat="37.831730" lon="-120.629550">
        <ele>145.517</ele>
        <time>2018-12-28T10:39:00Z</time>
      </trkpt>
      <trkpt lat="37.831900" lon="-120.629340">
        <ele>146.208</ele>
        <time>2018-12-28T10:39:20Z</time>
      </trkpt>
      <trkpt lat="37.832240" lon="-120.629000">
        <ele>146.231</ele>
        <time>2018-12-28T10:39:40Z</time>
      </trkpt>
      <trkpt lat="37.832520" lon="-120.628750">
        <ele>146.729</ele>
        <time>2018-12-28T10:40:00Z</time>
      </trkpt>
      <trkpt lat="37.832750" lon="-120.628540">
        <ele>146.714</ele>
        <time>2018-12-28T10:40:20Z</time>
      </trkpt>
      <trkpt lat="37.832880" lon="-120.628430">
        <ele>146.713</ele>
        <time>2018-12-28T10:40:40Z</time>
      </trkpt>
      <trkpt lat="37.833040" lon="-120.628300">
        <ele>146.277</ele>
        <time>2018-12-28T10:41:00Z</time>
      </trkpt>
      <trkpt lat="37.833150" lon="-120.628210">
        <ele>147.043</ele>
        <time>2018-12-28T10:41:20Z</time>
      </trkpt>
      <trkpt lat="37.833430" lon="-120.627990">
        <ele>146.110</ele>
        <time>2018-12-28T10:41:40Z</time>
      </trkpt>
      <trkpt lat="37.833660" lon="-120.627830">
        <ele>147.654</ele>
        <time>2018-12-28T10:42:00Z</time>
      </trkpt>
      <trkpt lat="37.833800" lon="-120.627740">
        <ele>148.278</ele>
        <time>2018-12-28T10:42:20Z</time>
      </trkpt>
      <trkpt lat="37.833990" lon="-120.627630">
        <ele>148.733</ele>
        <time>2018-12-28T10:42:40Z</time>
      </trkpt>
      <trkpt lat="37.834100" lon="-120.627560">
        <ele>149.226</ele>
        <time>2018-12-28T10:43:00Z</time>
      </trkpt>
      <trkpt lat="37.834220" lon="-120.627480">
        <ele>149.708</ele>
        <time>2018-12-28T10:43:20Z</time>
      </trkpt>
      <trkpt lat="37.834560" lon="-120.627300">
        <ele>151.130</ele>
        <time>2018-12-28T10:43:40Z</time>
      </trkpt>
      <trkpt lat="37.835000" lon="-120.627100">
        <ele>151.958</ele>
        <time>2018-12-28T10:44:00Z</time>
      </trkpt>
      <trkpt lat="37.835330" lon="-120.626950">
        <ele>155.763</ele>
        <time>2018-12-28T10:44:20Z</time>
      </trkpt>
      <trkpt lat="37.835630" lon="-120.626840">
        <ele>155.312</ele>
        <time>2018-12-28T10:44:40Z</time>
      </trkpt>
      <trkpt lat="37.836050" lon="-120.626690">
        <ele>156.836</ele>
        <time>2018-12-28T10:45:00Z</time>
      </trkpt>
      <trkpt lat="37.836650" lon="-120.626430">
        <ele>161.242</ele>
        <time>2018-12-28T10:45:20Z</time>
      </trkpt>
      <trkpt lat="37.837160" lon="-120.626200">
        <ele>165.369</ele>
        <time>2018-12-28T10:45:40Z</time>
      </trkpt>
      <trkpt lat="37.837400" lon="-120.626090">
        <ele>167.353</ele>
        <time>2018-12-28T10:46:00Z</time>
      </trkpt>
      <trkpt lat="37.837550" lon="-120.626020">
        <ele>167.656</ele>
        <time>2018-12-28T10:46:20Z</time>
      </trkpt>
      <trkpt lat="37.837790" lon="-120.625890">
        <ele>169.759</ele>
        <time>2018-12-28T10:46:40Z</time>
      </trkpt>
      <trkpt lat="37.837940" lon="-120.625800">
        <ele>170.714</ele>
        <time>2018-12-28T10:47:00Z</time>
      </trkpt>
      <trkpt lat="37.838380" lon="-120.625550">
        <ele>173.108</ele>
        <time>2018-12-28T10:47:20Z</time>
      </trkpt>
      <trkpt lat="37.838500" lon="-120.625470">
        <ele>172.578</ele>
        <time>2018-12-28T10:47:40Z</time>
      </trkpt>
      <trkpt lat="37.838760" lon="-120.625260">
        <ele>174.976</ele>
        <time>2018-12-28T10:48:00Z</time>
      </trkpt>
      <trkpt lat="37.838970" lon="-120.625100">
        <ele>176.381</ele>
        <time>2018-12-28T10:48:20Z</time>
      </trkpt>
      <trkpt lat="37.839270" lon="-120.624820">
        <ele>178.510</ele>
        <time>2018-12-28T10:48:40Z</time>
      </trkpt>
      <trkpt lat="37.839690" lon="-120.624430">
        <ele>181.624</ele>
        <time>2018-12-28T10:49:00Z</time>
      </trkpt>
      <trkpt lat="37.839950" lon="-120.624180">
        <ele>179.720</ele>
        <time>2018-12-28T10:49:20Z</time>
      </trkpt>
      <trkpt lat="37.840090" lon="-120.624050">
        <ele>180.287</ele>
        <time>2018-12-28T10:49:40Z</time>
      </trkpt>
      <trkpt lat="37.840230" lon="-120.623890">
        <ele>178.451</ele>
        <time>2018-12-28T10:50:00Z</time>
      </trkpt>
      <trkpt lat="37.840320" lon="-120.623790">
        <ele>179.434</ele>
        <time>2018-12-28T10:50:20Z</time>
      </trkpt>
      <trkpt lat="37.840390" lon="-120.623700">
        <ele>180.855</ele>
        <time>2018-12-28T10:50:40Z</time>
      </trkpt>
      <trkpt lat="37.840460" lon="-120.623600">
        <ele>180.910</ele>
        <time>2018-12-28T10:51:00Z</time>
      </trkpt>
      <trkpt lat="37.840650" lon="-120.623330">
        <ele>181.608</ele>
        <time>2018-12-28T10:51:20Z</time>
      </trkpt>
      <trkpt lat="37.840680" lon="-120.623290">
        <ele>181.956</ele>
        <time>2018-12-28T10:51:40Z</time>
      </trkpt>
      <trkpt lat="37.840770" lon="-120.623150">
        <ele>182.154</ele>
        <time>2018-12-28T10:52:00Z</time>
      </trkpt>
      <trkpt lat="37.840940" lon="-120.622850">
        <ele>183.779</ele>
        <time>2018-12-28T10:52:20Z</time>
      </trkpt>
      <trkpt lat="37.841020" lon="-120.622730">
        <ele>184.348</ele>
        <time>2018-12-28T10:52:40Z</time>
      </trkpt>
      <trkpt lat="37.841250" lon="-120.622320">
        <ele>184.772</ele>
        <time>2018-12-28T10:53:00Z</time>
      </trkpt>
      <trkpt lat="37.841380" lon="-120.622090">
        <ele>185.458</ele>
        <time>2018-12-28T10:53:20Z</time>
      </trkpt>
      <trkpt lat="37.841500" lon="-120.621860">
        <ele>186.075</ele>
        <time>2018-12-28T10:53:40Z</time>
      </trkpt>
      <trkpt lat="37.841560" lon="-120.621740">
        <ele>186.159</ele>
        <time>2018-12-28T10:54:00Z</time>
      </trkpt>
      <trkpt lat="37.841610" lon="-120.621630">
        <ele>186.269</ele>
        <time>2018-12-28T10:54:20Z</time>
      </trkpt>
      <trkpt lat="37.842120" lon="-120.620590">
        <ele>192.104</ele>
        <time>2018-12-28T10:54:40Z</time>
      </trkpt>
      <trkpt lat="37.842240" lon="-120.620350">
        <ele>193.624</ele>
        <time>2018-12-28T10:55:00Z</time>
      </trkpt>
      <trkpt lat="37.842730" lon="-120.619370">
        <ele>199.408</ele>
        <time>2018-12-28T10:55:20Z</time>
      </trkpt>
      <trkpt lat="37.842930" lon="-120.618990">
        <ele>200.219</ele>
        <time>2018-12-28T10:55:40Z</time>
      </trkpt>
      <trkpt lat="37.843330" lon="-120.618160">
        <ele>207.037</ele>
        <time>2018-12-28T10:56:00Z</time>
      </trkpt>
      <trkpt lat="37.843740" lon="-120.617330">
        <ele>210.372</ele>
        <time>2018-12-28T10:56:20Z</time>
      </trkpt>
      <trkpt lat="37.844040" lon="-120.616710">
        <ele>213.231</ele>
        <time>2018-12-28T10:56:40Z</time>
      </trkpt>
      <trkpt lat="37.844140" lon="-120.616490">
        <ele>212.975</ele>
        <time>2018-12-28T10:57:00Z</time>
      </trkpt>
      <trkpt lat="37.844300" lon="-120.616100">
        <ele>216.961</ele>
        <time>2018-12-28T10:57:20Z</time>
      </trkpt>
      <trkpt lat="37.844370" lon="-120.615930">
        <ele>217.398</ele>
        <time>2018-12-28T10:57:40Z</time>
      </trkpt>
      <trkpt lat="37.844570" lon="-120.615420">
        <ele>220.842</ele>
        <time>2018-12-28T10:58:00Z</time>
      </trkpt>
      <trkpt lat="37.844660" lon="-120.615170">
        <ele>220.862</ele>
        <time>2018-12-28T10:58:20Z</time>
      </trkpt>
      <trkpt lat="37.844760" lon="-120.614900">
        <ele>223.783</ele>
        <time>2018-12-28T10:58:40Z</time>
      </trkpt>
      <trkpt lat="37.844940" lon="-120.614360">
        <ele>225.611</ele>
        <time>2018-12-28T10:59:00Z</time>
      </trkpt>
      <trkpt lat="37.845060" lon="-120.613990">
        <ele>229.608</ele>
        <time>2018-12-28T10:59:20Z</time>
      </trkpt>
      <trkpt lat="37.845170" lon="-120.613620">
        <ele>229.859</ele>
        <time>2018-12-28T10:59:40Z</time>
      </trkpt>
      <trkpt lat="37.845260" lon="-120.613290">
        <ele>233.927</ele>
        <time>2018-12-28T11:00:00Z</time>
      </trkpt>
      <trkpt lat="37.845310" lon="-120.613110">
        <ele>235.542</ele>
        <time>2018-12-28T11:00:20Z</time>
      </trkpt>
      <trkpt lat="37.845350" lon="-120.612970">
        <ele>235.351</ele>
        <time>2018-12-28T11:00:40Z</time>
      </trkpt>
      <trkpt lat="37.845420" lon="-120.612710">
        <ele>234.365</ele>
        <time>2018-12-28T11:01:00Z</time>
      </trkpt>
      <trkpt lat="37.845460" lon="-120.612520">
        <ele>235.521</ele>
        <time>2018-12-28T11:01:20Z</time>
      </trkpt>
      <trkpt lat="37.845600" lon="-120.611910">
        <ele>241.688</ele>
        <time>2018-12-28T11:01:40Z</time>
      </trkpt>
      <trkpt lat="37.845680" lon="-120.611520">
        <ele>239.642</ele>
        <time>2018-12-28T11:02:00Z</time>
      </trkpt>
      <trkpt lat="37.845760" lon="-120.611120">
        <ele>239.444</ele>
        <time>2018-12-28T11:02:20Z</time>
      </trkpt>
      <trkpt lat="37.845860" lon="-120.610500">
        <ele>241.105</ele>
        <time>2018-12-28T11:02:40Z</time>
      </trkpt>
      <trkpt lat="37.845940" lon="-120.609940">
        <ele>243.415</ele>
        <time>2018-12-28T11:03:00Z</time>
      </trkpt>
      <trkpt lat="37.845990" lon="-120.609610">
        <ele>243.808</ele>
        <time>2018-12-28T11:03:20Z</time>
      </trkpt>
      <trkpt lat="37.846020" lon="-120.609390">
        <ele>244.087</ele>
        <time>2018-12-28T11:03:40Z</time>
      </trkpt>
      <trkpt lat="37.846040" lon="-120.609150">
        <ele>244.985</ele>
        <time>2018-12-28T11:04:00Z</time>
      </trkpt>
      <trkpt lat="37.846060" lon="-120.608910">
        <ele>246.290</ele>
        <time>2018-12-28T11:04:20Z</time>
      </trkpt>
      <trkpt lat="37.846070" lon="-120.608670">
        <ele>247.659</ele>
        <time>2018-12-28T11:04:40Z</time>
      </trkpt>
      <trkpt lat="37.846080" lon="-120.608460">
        <ele>248.753</ele>
        <time>2018-12-28T11:05:00Z</time>
      </trkpt>
      <trkpt lat="37.846090" lon="-120.608100">
        <ele>249.029</ele>
        <time>2018-12-28T11:05:20Z</time>
      </trkpt>
      <trkpt lat="37.846090" lon="-120.607800">
        <ele>249.036</ele>
        <time>2018-12-28T11:05:40Z</time>
      </trkpt>
      <trkpt lat="37.846070" lon="-120.607110">
        <ele>247.680</ele>
        <time>2018-12-28T11:06:00Z</time>
      </trkpt>
      <trkpt lat="37.846060" lon="-120.606920">
        <ele>247.363</ele>
        <time>2018-12-28T11:06:20Z</time>
      </trkpt>
      <trkpt lat="37.846070" lon="-120.606650">
        <ele>246.444</ele>
        <time>2018-12-28T11:06:40Z</time>
      </trkpt>
      <trkpt lat="37.846070" lon="-120.606480">
        <ele>246.018</ele>
        <time>2018-12-28T11:07:00Z</time>
      </trkpt>
      <trkpt lat="37.846080" lon="-120.606310">
        <ele>245.408</ele>
        <time>2018-12-28T11:07:20Z</time>
      </trkpt>
      <trkpt lat="37.846090" lon="-120.606150">
        <ele>245.749</ele>
        <time>2018-12-28T11:07:40Z</time>
      </trkpt>
      <trkpt lat="37.846110" lon="-120.605940">
        <ele>246.037</ele>
        <time>2018-12-28T11:08:00Z</time>
      </trkpt>
      <trkpt lat="37.846130" lon="-120.605710">
        <ele>244.572</ele>
        <time>2018-12-28T11:08:20Z</time>
      </trkpt>
      <trkpt lat="37.846160" lon="-120.605490">
        <ele>245.851</ele>
        <time>2018-12-28T11:08:40Z</time>
      </trkpt>
      <trkpt lat="37.846190" lon="-120.605310">
        <ele>247.445</ele>
        <time>2018-12-28T11:09:00Z</time>
      </trkpt>
      <trkpt lat="37.846220" lon="-120.605100">
        <ele>249.081</ele>
        <time>2018-12-28T11:09:20Z</time>
      </trkpt>
      <trkpt lat="37.846240" lon="-120.604950">
        <ele>249.778</ele>
        <time>2018-12-28T11:09:40Z</time>
      </trkpt>
      <trkpt lat="37.846310" lon="-120.604590">
        <ele>250.012</ele>
        <time>2018-12-28T11:10:00Z</time>
      </trkpt>
      <trkpt lat="37.846490" lon="-120.603740">
        <ele>252.068</ele>
        <time>2018-12-28T11:10:20Z</time>
      </trkpt>
      <trkpt lat="37.846640" lon="-120.603070">
        <ele>255.942</ele>
        <time>2018-12-28T11:10:40Z</time>
      </trkpt>
      <trkpt lat="37.846690" lon="-120.602830">
        <ele>257.526</ele>
        <time>2018-12-28T11:11:00Z</time>
      </trkpt>
      <trkpt lat="37.846750" lon="-120.602560">
        <ele>257.908</ele>
        <time>2018-12-28T11:11:20Z</time>
      </trkpt>
      <trkpt lat="37.846820" lon="-120.602310">
        <ele>259.389</ele>
        <time>2018-12-28T11:11:40Z</time>
      </trkpt>
      <trkpt lat="37.846860" lon="-120.602150">
        <ele>260.597</ele>
        <time>2018-12-28T11:12:00Z</time>
      </trkpt>
      <trkpt lat="37.846940" lon="-120.601930">
        <ele>262.292</ele>
        <time>2018-12-28T11:12:20Z</time>
      </trkpt>
      <trkpt lat="37.846990" lon="-120.601770">
        <ele>263.281</ele>
        <time>2018-12-28T11:12:40Z</time>
      </trkpt>
      <trkpt lat="37.847090" lon="-120.601540">
        <ele>263.095</ele>
        <time>2018-12-28T11:13:00Z</time>
      </trkpt>
      <trkpt lat="37.847170" lon="-120.601340">
        <ele>263.891</ele>
        <time>2018-12-28T11:13:20Z</time>
      </trkpt>
      <trkpt lat="37.847230" lon="-120.601240">
        <ele>264.238</ele>
        <time>2018-12-28T11:13:40Z</time>
      </trkpt>
      <trkpt lat="37.847290" lon="-120.601110">
        <ele>264.862</ele>
        <time>2018-12-28T11:14:00Z</time>
      </trkpt>
      <trkpt lat="37.847380" lon="-120.600930">
        <ele>265.194</ele>
        <time>2018-12-28T11:14:20Z</time>
      </trkpt>
      <trkpt lat="37.847430" lon="-120.600840">
        <ele>265.557</ele>
        <time>2018-12-28T11:14:40Z</time>
      </trkpt>
      <trkpt lat="37.847490" lon="-120.600750">
        <ele>265.922</ele>
        <time>2018-12-28T11:15:00Z</time>
      </trkpt>
      <trkpt lat="37.847640" lon="-120.600440">
        <ele>266.908</ele>
        <time>2018-12-28T11:15:20Z</time>
      </trkpt>
      <trkpt lat="37.847780" lon="-120.600130">
        <ele>268.612</ele>
        <time>2018-12-28T11:15:40Z</time>
      </trkpt>
      <trkpt lat="37.847960" lon="-120.599730">
        <ele>270.560</ele>
        <time>2018-12-28T11:16:00Z</time>
      </trkpt>
      <trkpt lat="37.848190" lon="-120.599180">
        <ele>272.745</ele>
        <time>2018-12-28T11:16:20Z</time>
      </trkpt>
      <trkpt lat="37.848360" lon="-120.598810">
        <ele>275.284</ele>
        <time>2018-12-28T11:16:40Z</time>
      </trkpt>
      <trkpt lat="37.848780" lon="-120.597830">
        <ele>281.468</ele>
        <time>2018-12-28T11:17:00Z</time>
      </trkpt>
      <trkpt lat="37.849040" lon="-120.597240">
        <ele>285.444</ele>
        <time>2018-12-28T11:17:20Z</time>
      </trkpt>
      <trkpt lat="37.849120" lon="-120.597040">
        <ele>287.271</ele>
        <time>2018-12-28T11:17:40Z</time>
      </trkpt>
      <trkpt lat="37.849200" lon="-120.596830">
        <ele>288.335</ele>
        <time>2018-12-28T11:18:00Z</time>
      </trkpt>
      <trkpt lat="37.849260" lon="-120.596670">
        <ele>288.643</ele>
        <time>2018-12-28T11:18:20Z</time>
      </trkpt>
      <trkpt lat="37.849400" lon="-120.596250">
        <ele>290.364</ele>
        <time>2018-12-28T11:18:40Z</time>
      </trkpt>
      <trkpt lat="37.849580" lon="-120.595720">
        <ele>290.110</ele>
        <time>2018-12-28T11:19:00Z</time>
      </trkpt>
      <trkpt lat="37.849680" lon="-120.595440">
        <ele>290.608</ele>
        <time>2018-12-28T11:19:20Z</time>
      </trkpt>
      <trkpt lat="37.849730" lon="-120.595260">
        <ele>291.447</ele>
        <time>2018-12-28T11:19:40Z</time>
      </trkpt>
      <trkpt lat="37.849760" lon="-120.595150">
        <ele>291.955</ele>
        <time>2018-12-28T11:20:00Z</time>
      </trkpt>
      <trkpt lat="37.849810" lon="-120.594960">
        <ele>292.710</ele>
        <time>2018-12-28T11:20:20Z</time>
      </trkpt>
      <trkpt lat="37.849830" lon="-120.594810">
        <ele>293.269</ele>
        <time>2018-12-28T11:20:40Z</time>
      </trkpt>
      <trkpt lat="37.849870" lon="-120.594580">
        <ele>293.973</ele>
        <time>2018-12-28T11:21:00Z</time>
      </trkpt>
      <trkpt lat="37.849880" lon="-120.594480">
        <ele>294.259</ele>
        <time>2018-12-28T11:21:20Z</time>
      </trkpt>
      <trkpt lat="37.849890" lon="-120.594280">
        <ele>294.676</ele>
        <time>2018-12-28T11:21:40Z</time>
      </trkpt>
      <trkpt lat="37.849990" lon="-120.591650">
        <ele>303.920</ele>
        <time>2018-12-28T11:22:00Z</time>
      </trkpt>
      <trkpt lat="37.850010" lon="-120.591040">
        <ele>307.437</ele>
        <time>2018-12-28T11:22:20Z</time>
      </trkpt>
      <trkpt lat="37.850010" lon="-120.590620">
        <ele>310.949</ele>
        <time>2018-12-28T11:22:40Z</time>
      </trkpt>
      <trkpt lat="37.850010" lon="-120.590430">
        <ele>312.313</ele>
        <time>2018-12-28T11:23:00Z</time>
      </trkpt>
      <trkpt lat="37.849990" lon="-120.590020">
        <ele>314.808</ele>
        <time>2018-12-28T11:23:20Z</time>
      </trkpt>
      <trkpt lat="37.849980" lon="-120.589870">
        <ele>315.546</ele>
        <time>2018-12-28T11:23:40Z</time>
      </trkpt>
      <trkpt lat="37.849980" lon="-120.589740">
        <ele>316.244</ele>
        <time>2018-12-28T11:24:00Z</time>
      </trkpt>
      <trkpt lat="37.849950" lon="-120.589510">
        <ele>317.389</ele>
        <time>2018-12-28T11:24:20Z</time>
      </trkpt>
      <trkpt lat="37.849910" lon="-120.589160">
        <ele>319.338</ele>
        <time>2018-12-28T11:24:40Z</time>
      </trkpt>
      <trkpt lat="37.849890" lon="-120.589000">
        <ele>320.362</ele>
        <time>2018-12-28T11:25:00Z</time>
      </trkpt>
      <trkpt lat="37.849860" lon="-120.588820">
        <ele>321.388</ele>
        <time>2018-12-28T11:25:20Z</time>
      </trkpt>
      <trkpt lat="37.849800" lon="-120.588460">
        <ele>322.945</ele>
        <time>2018-12-28T11:25:40Z</time>
      </trkpt>
      <trkpt lat="37.849740" lon="-120.588170">
        <ele>323.159</ele>
        <time>2018-12-28T11:26:00Z</time>
      </trkpt>
      <trkpt lat="37.849680" lon="-120.587910">
        <ele>323.789</ele>
        <time>2018-12-28T11:26:20Z</time>
      </trkpt>
      <trkpt lat="37.849570" lon="-120.587480">
        <ele>323.306</ele>
        <time>2018-12-28T11:26:40Z</time>
      </trkpt>
      <trkpt lat="37.849490" lon="-120.587130">
        <ele>323.126</ele>
        <time>2018-12-28T11:27:00Z</time>
      </trkpt>
      <trkpt lat="37.849410" lon="-120.586810">
        <ele>322.408</ele>
        <time>2018-12-28T11:27:20Z</time>
      </trkpt>
      <trkpt lat="37.849240" lon="-120.586110">
        <ele>323.571</ele>
        <time>2018-12-28T11:27:40Z</time>
      </trkpt>
      <trkpt lat="37.849210" lon="-120.585960">
        <ele>323.599</ele>
        <time>2018-12-28T11:28:00Z</time>
      </trkpt>
      <trkpt lat="37.849190" lon="-120.585850">
        <ele>323.684</ele>
        <time>2018-12-28T11:28:20Z</time>
      </trkpt>
      <trkpt lat="37.849180" lon="-120.585750">
        <ele>323.633</ele>
        <time>2018-12-28T11:28:40Z</time>
      </trkpt>
      <trkpt lat="37.849140" lon="-120.585430">
        <ele>322.187</ele>
        <time>2018-12-28T11:29:00Z</time>
      </trkpt>
      <trkpt lat="37.849130" lon="-120.585180">
        <ele>320.023</ele>
        <time>2018-12-28T11:29:20Z</time>
      </trkpt>
      <trkpt lat="37.849120" lon="-120.584950">
        <ele>318.220</ele>
        <time>2018-12-28T11:29:40Z</time>
      </trkpt>
      <trkpt lat="37.849110" lon="-120.584590">
        <ele>316.984</ele>
        <time>2018-12-28T11:30:00Z</time>
      </trkpt>
      <trkpt lat="37.849080" lon="-120.583740">
        <ele>317.549</ele>
        <time>2018-12-28T11:30:20Z</time>
      </trkpt>
      <trkpt lat="37.849070" lon="-120.583100">
        <ele>318.802</ele>
        <time>2018-12-28T11:30:40Z</time>
      </trkpt>
      <trkpt lat="37.849060" lon="-120.582780">
        <ele>320.022</ele>
        <time>2018-12-28T11:31:00Z</time>
      </trkpt>
      <trkpt lat="37.849050" lon="-120.582640">
        <ele>320.508</ele>
        <time>2018-12-28T11:31:20Z</time>
      </trkpt>
      <trkpt lat="37.849040" lon="-120.582580">
        <ele>320.877</ele>
        <time>2018-12-28T11:31:40Z</time>
      </trkpt>
      <trkpt lat="37.849020" lon="-120.582500">
        <ele>321.425</ele>
        <time>2018-12-28T11:32:00Z</time>
      </trkpt>
      <trkpt lat="37.849000" lon="-120.582400">
        <ele>322.110</ele>
        <time>2018-12-28T11:32:20Z</time>
      </trkpt>
      <trkpt lat="37.848990" lon="-120.582370">
        <ele>322.349</ele>
        <time>2018-12-28T11:32:40Z</time>
      </trkpt>
      <trkpt lat="37.848970" lon="-120.582310">
        <ele>322.263</ele>
        <time>2018-12-28T11:33:00Z</time>
      </trkpt>
      <trkpt lat="37.848950" lon="-120.582240">
        <ele>321.989</ele>
        <time>2018-12-28T11:33:20Z</time>
      </trkpt>
      <trkpt lat="37.848920" lon="-120.582170">
        <ele>321.866</ele>
        <time>2018-12-28T11:33:40Z</time>
      </trkpt>
      <trkpt lat="37.848860" lon="-120.582010">
        <ele>321.820</ele>
        <time>2018-12-28T11:34:00Z</time>
      </trkpt>
      <trkpt lat="37.848690" lon="-120.581620">
        <ele>322.735</ele>
        <time>2018-12-28T11:34:20Z</time>
      </trkpt>
      <trkpt lat="37.848390" lon="-120.580890">
        <ele>322.786</ele>
        <time>2018-12-28T11:34:40Z</time>
      </trkpt>
      <trkpt lat="37.848140" lon="-120.580300">
        <ele>322.614</ele>
        <time>2018-12-28T11:35:00Z</time>
      </trkpt>
      <trkpt lat="37.848020" lon="-120.579970">
        <ele>322.708</ele>
        <time>2018-12-28T11:35:20Z</time>
      </trkpt>
      <trkpt lat="37.847890" lon="-120.579550">
        <ele>322.646</ele>
        <time>2018-12-28T11:35:40Z</time>
      </trkpt>
      <trkpt lat="37.847790" lon="-120.579240">
        <ele>322.414</ele>
        <time>2018-12-28T11:36:00Z</time>
      </trkpt>
      <trkpt lat="37.847690" lon="-120.578900">
        <ele>322.749</ele>
        <time>2018-12-28T11:36:20Z</time>
      </trkpt>
      <trkpt lat="37.847620" lon="-120.578580">
        <ele>322.738</ele>
        <time>2018-12-28T11:36:40Z</time>
      </trkpt>
      <trkpt lat="37.847550" lon="-120.578290">
        <ele>322.912</ele>
        <time>2018-12-28T11:37:00Z</time>
      </trkpt>
      <trkpt lat="37.847460" lon="-120.577880">
        <ele>323.748</ele>
        <time>2018-12-28T11:37:20Z</time>
      </trkpt>
      <trkpt lat="37.847430" lon="-120.577700">
        <ele>323.515</ele>
        <time>2018-12-28T11:37:40Z</time>
      </trkpt>
      <trkpt lat="37.847370" lon="-120.577360">
        <ele>322.849</ele>
        <time>2018-12-28T11:38:00Z</time>
      </trkpt>
      <trkpt lat="37.847320" lon="-120.577030">
        <ele>322.612</ele>
        <time>2018-12-28T11:38:20Z</time>
      </trkpt>
      <trkpt lat="37.847290" lon="-120.576740">
        <ele>323.032</ele>
        <time>2018-12-28T11:38:40Z</time>
      </trkpt>
      <trkpt lat="37.847250" lon="-120.576440">
        <ele>322.805</ele>
        <time>2018-12-28T11:39:00Z</time>
      </trkpt>
      <trkpt lat="37.847230" lon="-120.576240">
        <ele>322.108</ele>
        <time>2018-12-28T11:39:20Z</time>
      </trkpt>
      <trkpt lat="37.847200" lon="-120.575860">
        <ele>321.094</ele>
        <time>2018-12-28T11:39:40Z</time>
      </trkpt>
      <trkpt lat="37.847190" lon="-120.575670">
        <ele>320.822</ele>
        <time>2018-12-28T11:40:00Z</time>
      </trkpt>
      <trkpt lat="37.847170" lon="-120.575280">
        <ele>320.837</ele>
        <time>2018-12-28T11:40:20Z</time>
      </trkpt>
      <trkpt lat="37.847170" lon="-120.575100">
        <ele>320.876</ele>
        <time>2018-12-28T11:40:40Z</time>
      </trkpt>
      <trkpt lat="37.847170" lon="-120.574940">
        <ele>320.720</ele>
        <time>2018-12-28T11:41:00Z</time>
      </trkpt>
      <trkpt lat="37.847170" lon="-120.574560">
        <ele>320.246</ele>
        <time>2018-12-28T11:41:20Z</time>
      </trkpt>
      <trkpt lat="37.847180" lon="-120.574170">
        <ele>319.943</ele>
        <time>2018-12-28T11:41:40Z</time>
      </trkpt>
      <trkpt lat="37.847190" lon="-120.573880">
        <ele>319.737</ele>
        <time>2018-12-28T11:42:00Z</time>
      </trkpt>
      <trkpt lat="37.847210" lon="-120.573500">
        <ele>319.319</ele>
        <time>2018-12-28T11:42:20Z</time>
      </trkpt>
      <trkpt lat="37.847220" lon="-120.573010">
        <ele>319.109</ele>
        <time>2018-12-28T11:42:40Z</time>
      </trkpt>
      <trkpt lat="37.847250" lon="-120.572390">
        <ele>319.319</ele>
        <time>2018-12-28T11:43:00Z</time>
      </trkpt>
      <trkpt lat="37.847250" lon="-120.572220">
        <ele>319.408</ele>
        <time>2018-12-28T11:43:20Z</time>
      </trkpt>
      <trkpt lat="37.847250" lon="-120.572080">
        <ele>319.584</ele>
        <time>2018-12-28T11:43:40Z</time>
      </trkpt>
      <trkpt lat="37.847240" lon="-120.571870">
        <ele>319.992</ele>
        <time>2018-12-28T11:44:00Z</time>
      </trkpt>
      <trkpt lat="37.847240" lon="-120.571720">
        <ele>319.947</ele>
        <time>2018-12-28T11:44:20Z</time>
      </trkpt>
      <trkpt lat="37.847210" lon="-120.571500">
        <ele>320.056</ele>
        <time>2018-12-28T11:44:40Z</time>
      </trkpt>
      <trkpt lat="37.847120" lon="-120.570670">
        <ele>317.240</ele>
        <time>2018-12-28T11:45:00Z</time>
      </trkpt>
      <trkpt lat="37.847060" lon="-120.570100">
        <ele>316.346</ele>
        <time>2018-12-28T11:45:20Z</time>
      </trkpt>
      <trkpt lat="37.847050" lon="-120.569960">
        <ele>316.043</ele>
        <time>2018-12-28T11:45:40Z</time>
      </trkpt>
      <trkpt lat="37.846900" lon="-120.568670">
        <ele>315.037</ele>
        <time>2018-12-28T11:46:00Z</time>
      </trkpt>
      <trkpt lat="37.846720" lon="-120.567010">
        <ele>316.595</ele>
        <time>2018-12-28T11:46:20Z</time>
      </trkpt>
      <trkpt lat="37.846460" lon="-120.564580">
        <ele>319.349</ele>
        <time>2018-12-28T11:46:40Z</time>
      </trkpt>
      <trkpt lat="37.846430" lon="-120.564270">
        <ele>319.023</ele>
        <time>2018-12-28T11:47:00Z</time>
      </trkpt>
      <trkpt lat="37.846380" lon="-120.563840">
        <ele>318.008</ele>
        <time>2018-12-28T11:47:20Z</time>
      </trkpt>
      <trkpt lat="37.846360" lon="-120.563560">
        <ele>316.652</ele>
        <time>2018-12-28T11:47:40Z</time>
      </trkpt>
      <trkpt lat="37.846350" lon="-120.563440">
        <ele>315.980</ele>
        <time>2018-12-28T11:48:00Z</time>
      </trkpt>
      <trkpt lat="37.846350" lon="-120.563280">
        <ele>314.995</ele>
        <time>2018-12-28T11:48:20Z</time>
      </trkpt>
      <trkpt lat="37.846340" lon="-120.563030">
        <ele>313.444</ele>
        <time>2018-12-28T11:48:40Z</time>
      </trkpt>
      <trkpt lat="37.846330" lon="-120.562650">
        <ele>311.928</ele>
        <time>2018-12-28T11:49:00Z</time>
      </trkpt>
      <trkpt lat="37.846320" lon="-120.562280">
        <ele>310.634</ele>
        <time>2018-12-28T11:49:20Z</time>
      </trkpt>
      <trkpt lat="37.846300" lon="-120.561230">
        <ele>305.741</ele>
        <time>2018-12-28T11:49:40Z</time>
      </trkpt>
      <trkpt lat="37.846270" lon="-120.560390">
        <ele>307.725</ele>
        <time>2018-12-28T11:50:00Z</time>
      </trkpt>
      <trkpt lat="37.846260" lon="-120.559820">
        <ele>307.415</ele>
        <time>2018-12-28T11:50:20Z</time>
      </trkpt>
      <trkpt lat="37.846160" lon="-120.556030">
        <ele>297.065</ele>
        <time>2018-12-28T11:50:40Z</time>
      </trkpt>
      <trkpt lat="37.846150" lon="-120.555660">
        <ele>296.811</ele>
        <time>2018-12-28T11:51:00Z</time>
      </trkpt>
      <trkpt lat="37.846140" lon="-120.555410">
        <ele>296.708</ele>
        <time>2018-12-28T11:51:20Z</time>
      </trkpt>
      <trkpt lat="37.846130" lon="-120.555180">
        <ele>296.894</ele>
        <time>2018-12-28T11:51:40Z</time>
      </trkpt>
      <trkpt lat="37.846110" lon="-120.554930">
        <ele>297.122</ele>
        <time>2018-12-28T11:52:00Z</time>
      </trkpt>
      <trkpt lat="37.846100" lon="-120.554740">
        <ele>297.337</ele>
        <time>2018-12-28T11:52:20Z</time>
      </trkpt>
      <trkpt lat="37.846070" lon="-120.554360">
        <ele>297.646</ele>
        <time>2018-12-28T11:52:40Z</time>
      </trkpt>
      <trkpt lat="37.846050" lon="-120.554100">
        <ele>298.130</ele>
        <time>2018-12-28T11:53:00Z</time>
      </trkpt>
      <trkpt lat="37.846020" lon="-120.553820">
        <ele>297.696</ele>
        <time>2018-12-28T11:53:20Z</time>
      </trkpt>
      <trkpt lat="37.845990" lon="-120.553620">
        <ele>297.333</ele>
        <time>2018-12-28T11:53:40Z</time>
      </trkpt>
      <trkpt lat="37.845960" lon="-120.553340">
        <ele>297.317</ele>
        <time>2018-12-28T11:54:00Z</time>
      </trkpt>
      <trkpt lat="37.845920" lon="-120.553030">
        <ele>297.529</ele>
        <time>2018-12-28T11:54:20Z</time>
      </trkpt>
      <trkpt lat="37.845880" lon="-120.552770">
        <ele>297.500</ele>
        <time>2018-12-28T11:54:40Z</time>
      </trkpt>
      <trkpt lat="37.845820" lon="-120.552370">
        <ele>297.020</ele>
        <time>2018-12-28T11:55:00Z</time>
      </trkpt>
      <trkpt lat="37.845780" lon="-120.552140">
        <ele>296.808</ele>
        <time>2018-12-28T11:55:20Z</time>
      </trkpt>
      <trkpt lat="37.845730" lon="-120.551860">
        <ele>297.125</ele>
        <time>2018-12-28T11:55:40Z</time>
      </trkpt>
      <trkpt lat="37.845680" lon="-120.551590">
        <ele>297.313</ele>
        <time>2018-12-28T11:56:00Z</time>
      </trkpt>
      <trkpt lat="37.845570" lon="-120.551060">
        <ele>297.098</ele>
        <time>2018-12-28T11:56:20Z</time>
      </trkpt>
      <trkpt lat="37.845510" lon="-120.550820">
        <ele>297.637</ele>
        <time>2018-12-28T11:56:40Z</time>
      </trkpt>
      <trkpt lat="37.845460" lon="-120.550590">
        <ele>298.091</ele>
        <time>2018-12-28T11:57:00Z</time>
      </trkpt>
      <trkpt lat="37.845380" lon="-120.550290">
        <ele>298.397</ele>
        <time>2018-12-28T11:57:20Z</time>
      </trkpt>
      <trkpt lat="37.845320" lon="-120.550060">
        <ele>299.394</ele>
        <time>2018-12-28T11:57:40Z</time>
      </trkpt>
      <trkpt lat="37.845260" lon="-120.549840">
        <ele>299.858</ele>
        <time>2018-12-28T11:58:00Z</time>
      </trkpt>
      <trkpt lat="37.845190" lon="-120.549590">
        <ele>298.662</ele>
        <time>2018-12-28T11:58:20Z</time>
      </trkpt>
      <trkpt lat="37.845100" lon="-120.549270">
        <ele>298.583</ele>
        <time>2018-12-28T11:58:40Z</time>
      </trkpt>
      <trkpt lat="37.845010" lon="-120.548980">
        <ele>298.911</ele>
        <time>2018-12-28T11:59:00Z</time>
      </trkpt>
      <trkpt lat="37.844880" lon="-120.548560">
        <ele>299.008</ele>
        <time>2018-12-28T11:59:20Z</time>
      </trkpt>
      <trkpt lat="37.844580" lon="-120.547630">
        <ele>299.619</ele>
        <time>2018-12-28T11:59:40Z</time>
      </trkpt>
      <trkpt lat="37.844380" lon="-120.546980">
        <ele>299.397</ele>
        <time>2018-12-28T12:00:00Z</time>
      </trkpt>
      <trkpt lat="37.844190" lon="-120.546390">
        <ele>296.252</ele>
        <time>2018-12-28T12:00:20Z</time>
      </trkpt>
      <trkpt lat="37.844000" lon="-120.545810">
        <ele>299.711</ele>
        <time>2018-12-28T12:00:40Z</time>
      </trkpt>
      <trkpt lat="37.843760" lon="-120.545030">
        <ele>300.875</ele>
        <time>2018-12-28T12:01:00Z</time>
      </trkpt>
      <trkpt lat="37.843680" lon="-120.544770">
        <ele>299.181</ele>
        <time>2018-12-28T12:01:20Z</time>
      </trkpt>
      <trkpt lat="37.843590" lon="-120.544430">
        <ele>299.538</ele>
        <time>2018-12-28T12:01:40Z</time>
      </trkpt>
      <trkpt lat="37.843490" lon="-120.544060">
        <ele>301.032</ele>
        <time>2018-12-28T12:02:00Z</time>
      </trkpt>
      <trkpt lat="37.843420" lon="-120.543740">
        <ele>300.592</ele>
        <time>2018-12-28T12:02:20Z</time>
      </trkpt>
      <trkpt lat="37.843370" lon="-120.543490">
        <ele>300.473</ele>
        <time>2018-12-28T12:02:40Z</time>
      </trkpt>
      <trkpt lat="37.843310" lon="-120.543210">
        <ele>300.720</ele>
        <time>2018-12-28T12:03:00Z</time>
      </trkpt>
      <trkpt lat="37.843280" lon="-120.542990">
        <ele>300.808</ele>
        <time>2018-12-28T12:03:20Z</time>
      </trkpt>
      <trkpt lat="37.843240" lon="-120.542770">
        <ele>300.992</ele>
        <time>2018-12-28T12:03:40Z</time>
      </trkpt>
      <trkpt lat="37.843190" lon="-120.542450">
        <ele>300.970</ele>
        <time>2018-12-28T12:04:00Z</time>
      </trkpt>
      <trkpt lat="37.843130" lon="-120.541990">
        <ele>301.425</ele>
        <time>2018-12-28T12:04:20Z</time>
      </trkpt>
      <trkpt lat="37.843100" lon="-120.541690">
        <ele>301.344</ele>
        <time>2018-12-28T12:04:40Z</time>
      </trkpt>
      <trkpt lat="37.843070" lon="-120.541310">
        <ele>301.238</ele>
        <time>2018-12-28T12:05:00Z</time>
      </trkpt>
      <trkpt lat="37.843050" lon="-120.541030">
        <ele>300.944</ele>
        <time>2018-12-28T12:05:20Z</time>
      </trkpt>
      <trkpt lat="37.843040" lon="-120.540790">
        <ele>300.541</ele>
        <time>2018-12-28T12:05:40Z</time>
      </trkpt>
      <trkpt lat="37.843030" lon="-120.540480">
        <ele>300.075</ele>
        <time>2018-12-28T12:06:00Z</time>
      </trkpt>
      <trkpt lat="37.843030" lon="-120.540190">
        <ele>300.397</ele>
        <time>2018-12-28T12:06:20Z</time>
      </trkpt>
      <trkpt lat="37.843030" lon="-120.539870">
        <ele>300.623</ele>
        <time>2018-12-28T12:06:40Z</time>
      </trkpt>
      <trkpt lat="37.843030" lon="-120.539590">
        <ele>300.825</ele>
        <time>2018-12-28T12:07:00Z</time>
      </trkpt>
      <trkpt lat="37.843040" lon="-120.539320">
        <ele>300.508</ele>
        <time>2018-12-28T12:07:20Z</time>
      </trkpt>
      <trkpt lat="37.843070" lon="-120.538830">
        <ele>299.432</ele>
        <time>2018-12-28T12:07:40Z</time>
      </trkpt>
      <trkpt lat="37.843090" lon="-120.538540">
        <ele>298.920</ele>
        <time>2018-12-28T12:08:00Z</time>
      </trkpt>
      <trkpt lat="37.843150" lon="-120.537850">
        <ele>300.065</ele>
        <time>2018-12-28T12:08:20Z</time>
      </trkpt>
      <trkpt lat="37.843350" lon="-120.535780">
        <ele>301.854</ele>
        <time>2018-12-28T12:08:40Z</time>
      </trkpt>
      <trkpt lat="37.843420" lon="-120.535020">
        <ele>303.378</ele>
        <time>2018-12-28T12:09:00Z</time>
      </trkpt>
      <trkpt lat="37.843420" lon="-120.534970">
        <ele>303.484</ele>
        <time>2018-12-28T12:09:20Z</time>
      </trkpt>
      <trkpt lat="37.843440" lon="-120.534610">
        <ele>303.671</ele>
        <time>2018-12-28T12:09:40Z</time>
      </trkpt>
      <trkpt lat="37.843450" lon="-120.534450">
        <ele>303.745</ele>
        <time>2018-12-28T12:10:00Z</time>
      </trkpt>
      <trkpt lat="37.843450" lon="-120.534250">
        <ele>304.096</ele>
        <time>2018-12-28T12:10:20Z</time>
      </trkpt>
      <trkpt lat="37.843450" lon="-120.533990">
        <ele>304.531</ele>
        <time>2018-12-28T12:10:40Z</time>
      </trkpt>
      <trkpt lat="37.843450" lon="-120.533610">
        <ele>305.424</ele>
        <time>2018-12-28T12:11:00Z</time>
      </trkpt>
      <trkpt lat="37.843430" lon="-120.533370">
        <ele>306.208</ele>
        <time>2018-12-28T12:11:20Z</time>
      </trkpt>
      <trkpt lat="37.843430" lon="-120.533200">
        <ele>306.512</ele>
        <time>2018-12-28T12:11:40Z</time>
      </trkpt>
      <trkpt lat="37.843400" lon="-120.532940">
        <ele>306.930</ele>
        <time>2018-12-28T12:12:00Z</time>
      </trkpt>
      <trkpt lat="37.843400" lon="-120.532890">
        <ele>307.095</ele>
        <time>2018-12-28T12:12:20Z</time>
      </trkpt>
      <trkpt lat="37.843350" lon="-120.532410">
        <ele>307.794</ele>
        <time>2018-12-28T12:12:40Z</time>
      </trkpt>
      <trkpt lat="37.843310" lon="-120.531990">
        <ele>309.088</ele>
        <time>2018-12-28T12:13:00Z</time>
      </trkpt>
      <trkpt lat="37.843210" lon="-120.530940">
        <ele>311.674</ele>
        <time>2018-12-28T12:13:20Z</time>
      </trkpt>
      <trkpt lat="37.843160" lon="-120.530340">
        <ele>312.921</ele>
        <time>2018-12-28T12:13:40Z</time>
      </trkpt>
      <trkpt lat="37.843090" lon="-120.529680">
        <ele>313.925</ele>
        <time>2018-12-28T12:14:00Z</time>
      </trkpt>
      <trkpt lat="37.843000" lon="-120.528990">
        <ele>314.942</ele>
        <time>2018-12-28T12:14:20Z</time>
      </trkpt>
      <trkpt lat="37.842960" lon="-120.528690">
        <ele>315.522</ele>
        <time>2018-12-28T12:14:40Z</time>
      </trkpt>
      <trkpt lat="37.842960" lon="-120.528630">
        <ele>315.614</ele>
        <time>2018-12-28T12:15:00Z</time>
      </trkpt>
      <trkpt lat="37.842970" lon="-120.528510">
        <ele>315.708</ele>
        <time>2018-12-28T12:15:20Z</time>
      </trkpt>
      <trkpt lat="37.842910" lon="-120.528160">
        <ele>316.497</ele>
        <time>2018-12-28T12:15:40Z</time>
      </trkpt>
      <trkpt lat="37.842820" lon="-120.527610">
        <ele>317.175</ele>
        <time>2018-12-28T12:16:00Z</time>
      </trkpt>
      <trkpt lat="37.842300" lon="-120.524780">
        <ele>318.540</ele>
        <time>2018-12-28T12:16:20Z</time>
      </trkpt>
      <trkpt lat="37.842260" lon="-120.524540">
        <ele>318.939</ele>
        <time>2018-12-28T12:16:40Z</time>
      </trkpt>
      <trkpt lat="37.842050" lon="-120.523350">
        <ele>318.623</ele>
        <time>2018-12-28T12:17:00Z</time>
      </trkpt>
      <trkpt lat="37.842000" lon="-120.523030">
        <ele>317.079</ele>
        <time>2018-12-28T12:17:20Z</time>
      </trkpt>
      <trkpt lat="37.841910" lon="-120.522590">
        <ele>318.966</ele>
        <time>2018-12-28T12:17:40Z</time>
      </trkpt>
      <trkpt lat="37.841760" lon="-120.521780">
        <ele>320.910</ele>
        <time>2018-12-28T12:18:00Z</time>
      </trkpt>
      <trkpt lat="37.841270" lon="-120.519110">
        <ele>325.249</ele>
        <time>2018-12-28T12:18:20Z</time>
      </trkpt>
      <trkpt lat="37.841240" lon="-120.518910">
        <ele>325.102</ele>
        <time>2018-12-28T12:18:40Z</time>
      </trkpt>
      <trkpt lat="37.841080" lon="-120.518070">
        <ele>327.922</ele>
        <time>2018-12-28T12:19:00Z</time>
      </trkpt>
      <trkpt lat="37.841050" lon="-120.517910">
        <ele>326.608</ele>
        <time>2018-12-28T12:19:20Z</time>
      </trkpt>
      <trkpt lat="37.841030" lon="-120.517750">
        <ele>325.967</ele>
        <time>2018-12-28T12:19:40Z</time>
      </trkpt>
      <trkpt lat="37.841010" lon="-120.517600">
        <ele>325.185</ele>
        <time>2018-12-28T12:20:00Z</time>
      </trkpt>
      <trkpt lat="37.840990" lon="-120.517410">
        <ele>324.490</ele>
        <time>2018-12-28T12:20:20Z</time>
      </trkpt>
      <trkpt lat="37.840970" lon="-120.517270">
        <ele>323.929</ele>
        <time>2018-12-28T12:20:40Z</time>
      </trkpt>
      <trkpt lat="37.840960" lon="-120.517080">
        <ele>323.633</ele>
        <time>2018-12-28T12:21:00Z</time>
      </trkpt>
      <trkpt lat="37.840950" lon="-120.516890">
        <ele>323.229</ele>
        <time>2018-12-28T12:21:20Z</time>
      </trkpt>
      <trkpt lat="37.840950" lon="-120.516700">
        <ele>322.656</ele>
        <time>2018-12-28T12:21:40Z</time>
      </trkpt>
      <trkpt lat="37.840950" lon="-120.516500">
        <ele>321.990</ele>
        <time>2018-12-28T12:22:00Z</time>
      </trkpt>
      <trkpt lat="37.840950" lon="-120.516260">
        <ele>321.067</ele>
        <time>2018-12-28T12:22:20Z</time>
      </trkpt>
      <trkpt lat="37.840970" lon="-120.516020">
        <ele>320.581</ele>
        <time>2018-12-28T12:22:40Z</time>
      </trkpt>
      <trkpt lat="37.840990" lon="-120.515800">
        <ele>319.419</ele>
        <time>2018-12-28T12:23:00Z</time>
      </trkpt>
      <trkpt lat="37.841000" lon="-120.515690">
        <ele>318.708</ele>
        <time>2018-12-28T12:23:20Z</time>
      </trkpt>
      <trkpt lat="37.841020" lon="-120.515580">
        <ele>318.349</ele>
        <time>2018-12-28T12:23:40Z</time>
      </trkpt>
      <trkpt lat="37.841030" lon="-120.515430">
        <ele>318.697</ele>
        <time>2018-12-28T12:24:00Z</time>
      </trkpt>
      <trkpt lat="37.841050" lon="-120.515320">
        <ele>319.022</ele>
        <time>2018-12-28T12:24:20Z</time>
      </trkpt>
      <trkpt lat="37.841080" lon="-120.515190">
        <ele>319.691</ele>
        <time>2018-12-28T12:24:40Z</time>
      </trkpt>
      <trkpt lat="37.841110" lon="-120.515020">
        <ele>317.115</ele>
        <time>2018-12-28T12:25:00Z</time>
      </trkpt>
      <trkpt lat="37.841180" lon="-120.514750">
        <ele>313.771</ele>
        <time>2018-12-28T12:25:20Z</time>
      </trkpt>
      <trkpt lat="37.841400" lon="-120.513870">
        <ele>313.228</ele>
        <time>2018-12-28T12:25:40Z</time>
      </trkpt>
      <trkpt lat="37.841740" lon="-120.512600">
        <ele>312.482</ele>
        <time>2018-12-28T12:26:00Z</time>
      </trkpt>
      <trkpt lat="37.841980" lon="-120.511680">
        <ele>312.351</ele>
        <time>2018-12-28T12:26:20Z</time>
      </trkpt>
      <trkpt lat="37.842140" lon="-120.511100">
        <ele>308.201</ele>
        <time>2018-12-28T12:26:40Z</time>
      </trkpt>
      <trkpt lat="37.842250" lon="-120.510720">
        <ele>307.511</ele>
        <time>2018-12-28T12:27:00Z</time>
      </trkpt>
      <trkpt lat="37.842400" lon="-120.510120">
        <ele>312.608</ele>
        <time>2018-12-28T12:27:20Z</time>
      </trkpt>
      <trkpt lat="37.842460" lon="-120.509870">
        <ele>314.168</ele>
        <time>2018-12-28T12:27:40Z</time>
      </trkpt>
      <trkpt lat="37.842580" lon="-120.509490">
        <ele>317.216</ele>
        <time>2018-12-28T12:28:00Z</time>
      </trkpt>
      <trkpt lat="37.842670" lon="-120.509240">
        <ele>316.851</ele>
        <time>2018-12-28T12:28:20Z</time>
      </trkpt>
      <trkpt lat="37.842770" lon="-120.508990">
        <ele>317.710</ele>
        <time>2018-12-28T12:28:40Z</time>
      </trkpt>
      <trkpt lat="37.842890" lon="-120.508740">
        <ele>319.264</ele>
        <time>2018-12-28T12:29:00Z</time>
      </trkpt>
      <trkpt lat="37.842980" lon="-120.508580">
        <ele>320.110</ele>
        <time>2018-12-28T12:29:20Z</time>
      </trkpt>
      <trkpt lat="37.843070" lon="-120.508430">
        <ele>321.027</ele>
        <time>2018-12-28T12:29:40Z</time>
      </trkpt>
      <trkpt lat="37.843130" lon="-120.508330">
        <ele>321.451</ele>
        <time>2018-12-28T12:30:00Z</time>
      </trkpt>
      <trkpt lat="37.843330" lon="-120.508040">
        <ele>323.375</ele>
        <time>2018-12-28T12:30:20Z</time>
      </trkpt>
      <trkpt lat="37.843620" lon="-120.507730">
        <ele>324.928</ele>
        <time>2018-12-28T12:30:40Z</time>
      </trkpt>
      <trkpt lat="37.843710" lon="-120.507650">
        <ele>325.020</ele>
        <time>2018-12-28T12:31:00Z</time>
      </trkpt>
      <trkpt lat="37.843760" lon="-120.507600">
        <ele>325.308</ele>
        <time>2018-12-28T12:31:20Z</time>
      </trkpt>
      <trkpt lat="37.843790" lon="-120.507570">
        <ele>325.860</ele>
        <time>2018-12-28T12:31:40Z</time>
      </trkpt>
      <trkpt lat="37.843880" lon="-120.507500">
        <ele>326.888</ele>
        <time>2018-12-28T12:32:00Z</time>
      </trkpt>
      <trkpt lat="37.843960" lon="-120.507430">
        <ele>327.273</ele>
        <time>2018-12-28T12:32:20Z</time>
      </trkpt>
      <trkpt lat="37.844100" lon="-120.507340">
        <ele>328.042</ele>
        <time>2018-12-28T12:32:40Z</time>
      </trkpt>
      <trkpt lat="37.844240" lon="-120.507240">
        <ele>329.416</ele>
        <time>2018-12-28T12:33:00Z</time>
      </trkpt>
      <trkpt lat="37.844380" lon="-120.507150">
        <ele>329.952</ele>
        <time>2018-12-28T12:33:20Z</time>
      </trkpt>
      <trkpt lat="37.844520" lon="-120.507070">
        <ele>329.679</ele>
        <time>2018-12-28T12:33:40Z</time>
      </trkpt>
      <trkpt lat="37.844610" lon="-120.507020">
        <ele>330.573</ele>
        <time>2018-12-28T12:34:00Z</time>
      </trkpt>
      <trkpt lat="37.844730" lon="-120.506960">
        <ele>332.149</ele>
        <time>2018-12-28T12:34:20Z</time>
      </trkpt>
      <trkpt lat="37.844850" lon="-120.506910">
        <ele>333.202</ele>
        <time>2018-12-28T12:34:40Z</time>
      </trkpt>
      <trkpt lat="37.844940" lon="-120.506880">
        <ele>333.522</ele>
        <time>2018-12-28T12:35:00Z</time>
      </trkpt>
      <trkpt lat="37.845030" lon="-120.506850">
        <ele>333.408</ele>
        <time>2018-12-28T12:35:20Z</time>
      </trkpt>
      <trkpt lat="37.845120" lon="-120.506830">
        <ele>333.297</ele>
        <time>2018-12-28T12:35:40Z</time>
      </trkpt>
      <trkpt lat="37.845230" lon="-120.506800">
        <ele>332.955</ele>
        <time>2018-12-28T12:36:00Z</time>
      </trkpt>
      <trkpt lat="37.845330" lon="-120.506780">
        <ele>333.480</ele>
        <time>2018-12-28T12:36:20Z</time>
      </trkpt>
      <trkpt lat="37.845420" lon="-120.506770">
        <ele>333.729</ele>
        <time>2018-12-28T12:36:40Z</time>
      </trkpt>
      <trkpt lat="37.845600" lon="-120.506740">
        <ele>334.433</ele>
        <time>2018-12-28T12:37:00Z</time>
      </trkpt>
      <trkpt lat="37.845730" lon="-120.506730">
        <ele>334.699</ele>
        <time>2018-12-28T12:37:20Z</time>
      </trkpt>
      <trkpt lat="37.845830" lon="-120.506730">
        <ele>334.816</ele>
        <time>2018-12-28T12:37:40Z</time>
      </trkpt>
      <trkpt lat="37.846010" lon="-120.506730">
        <ele>335.020</ele>
        <time>2018-12-28T12:38:00Z</time>
      </trkpt>
      <trkpt lat="37.846190" lon="-120.506750">
        <ele>335.181</ele>
        <time>2018-12-28T12:38:20Z</time>
      </trkpt>
      <trkpt lat="37.846380" lon="-120.506780">
        <ele>335.261</ele>
        <time>2018-12-28T12:38:40Z</time>
      </trkpt>
      <trkpt lat="37.846580" lon="-120.506820">
        <ele>335.617</ele>
        <time>2018-12-28T12:39:00Z</time>
      </trkpt>
      <trkpt lat="37.846730" lon="-120.506860">
        <ele>336.008</ele>
        <time>2018-12-28T12:39:20Z</time>
      </trkpt>
      <trkpt lat="37.846870" lon="-120.506910">
        <ele>336.061</ele>
        <time>2018-12-28T12:39:40Z</time>
      </trkpt>
      <trkpt lat="37.846980" lon="-120.506960">
        <ele>335.659</ele>
        <time>2018-12-28T12:40:00Z</time>
      </trkpt>
      <trkpt lat="37.848080" lon="-120.507450">
        <ele>333.164</ele>
        <time>2018-12-28T12:40:20Z</time>
      </trkpt>
      <trkpt lat="37.848750" lon="-120.507760">
        <ele>331.913</ele>
        <time>2018-12-28T12:40:40Z</time>
      </trkpt>
      <trkpt lat="37.850440" lon="-120.508500">
        <ele>330.477</ele>
        <time>2018-12-28T12:41:00Z</time>
      </trkpt>
      <trkpt lat="37.851320" lon="-120.508900">
        <ele>328.233</ele>
        <time>2018-12-28T12:41:20Z</time>
      </trkpt>
      <trkpt lat="37.852720" lon="-120.509540">
        <ele>325.760</ele>
        <time>2018-12-28T12:41:40Z</time>
      </trkpt>
      <trkpt lat="37.853750" lon="-120.510010">
        <ele>323.014</ele>
        <time>2018-12-28T12:42:00Z</time>
      </trkpt>
      <trkpt lat="37.856700" lon="-120.511330">
        <ele>325.135</ele>
        <time>2018-12-28T12:42:20Z</time>
      </trkpt>
      <trkpt lat="37.857400" lon="-120.511640">
        <ele>326.486</ele>
        <time>2018-12-28T12:42:40Z</time>
      </trkpt>
      <trkpt lat="37.857510" lon="-120.511690">
        <ele>326.814</ele>
        <time>2018-12-28T12:43:00Z</time>
      </trkpt>
      <trkpt lat="37.857610" lon="-120.511730">
        <ele>327.308</ele>
        <time>2018-12-28T12:43:20Z</time>
      </trkpt>
      <trkpt lat="37.857770" lon="-120.511770">
        <ele>327.556</ele>
        <time>2018-12-28T12:43:40Z</time>
      </trkpt>
      <trkpt lat="37.857890" lon="-120.511810">
        <ele>327.374</ele>
        <time>2018-12-28T12:44:00Z</time>
      </trkpt>
      <trkpt lat="37.858050" lon="-120.511860">
        <ele>328.339</ele>
        <time>2018-12-28T12:44:20Z</time>
      </trkpt>
      <trkpt lat="37.858240" lon="-120.511900">
        <ele>329.318</ele>
        <time>2018-12-28T12:44:40Z</time>
      </trkpt>
      <trkpt lat="37.858380" lon="-120.511930">
        <ele>329.722</ele>
        <time>2018-12-28T12:45:00Z</time>
      </trkpt>
      <trkpt lat="37.858520" lon="-120.511950">
        <ele>329.628</ele>
        <time>2018-12-28T12:45:20Z</time>
      </trkpt>
      <trkpt lat="37.858740" lon="-120.511980">
        <ele>328.675</ele>
        <time>2018-12-28T12:45:40Z</time>
      </trkpt>
      <trkpt lat="37.858860" lon="-120.511990">
        <ele>328.299</ele>
        <time>2018-12-28T12:46:00Z</time>
      </trkpt>
      <trkpt lat="37.859090" lon="-120.512000">
        <ele>327.563</ele>
        <time>2018-12-28T12:46:20Z</time>
      </trkpt>
      <trkpt lat="37.859340" lon="-120.512000">
        <ele>326.944</ele>
        <time>2018-12-28T12:46:40Z</time>
      </trkpt>
      <trkpt lat="37.859500" lon="-120.512000">
        <ele>326.518</ele>
        <time>2018-12-28T12:47:00Z</time>
      </trkpt>
      <trkpt lat="37.860640" lon="-120.511940">
        <ele>323.508</ele>
        <time>2018-12-28T12:47:20Z</time>
      </trkpt>
      <trkpt lat="37.860760" lon="-120.511940">
        <ele>323.789</ele>
        <time>2018-12-28T12:47:40Z</time>
      </trkpt>
      <trkpt lat="37.861290" lon="-120.511900">
        <ele>324.897</ele>
        <time>2018-12-28T12:48:00Z</time>
      </trkpt>
      <trkpt lat="37.861980" lon="-120.511860">
        <ele>325.622</ele>
        <time>2018-12-28T12:48:20Z</time>
      </trkpt>
      <trkpt lat="37.862660" lon="-120.511810">
        <ele>325.021</ele>
        <time>2018-12-28T12:48:40Z</time>
      </trkpt>
      <trkpt lat="37.863550" lon="-120.511770">
        <ele>324.525</ele>
        <time>2018-12-28T12:49:00Z</time>
      </trkpt>
      <trkpt lat="37.864860" lon="-120.511700">
        <ele>322.271</ele>
        <time>2018-12-28T12:49:20Z</time>
      </trkpt>
      <trkpt lat="37.865140" lon="-120.511670">
        <ele>321.978</ele>
        <time>2018-12-28T12:49:40Z</time>
      </trkpt>
      <trkpt lat="37.865220" lon="-120.511660">
        <ele>321.912</ele>
        <time>2018-12-28T12:50:00Z</time>
      </trkpt>
      <trkpt lat="37.865380" lon="-120.511650">
        <ele>322.127</ele>
        <time>2018-12-28T12:50:20Z</time>
      </trkpt>
      <trkpt lat="37.865550" lon="-120.511620">
        <ele>322.768</ele>
        <time>2018-12-28T12:50:40Z</time>
      </trkpt>
      <trkpt lat="37.865710" lon="-120.511590">
        <ele>323.414</ele>
        <time>2018-12-28T12:51:00Z</time>
      </trkpt>
      <trkpt lat="37.865880" lon="-120.511560">
        <ele>324.308</ele>
        <time>2018-12-28T12:51:20Z</time>
      </trkpt>
      <trkpt lat="37.866220" lon="-120.511480">
        <ele>326.065</ele>
        <time>2018-12-28T12:51:40Z</time>
      </trkpt>
      <trkpt lat="37.866470" lon="-120.511430">
        <ele>325.663</ele>
        <time>2018-12-28T12:52:00Z</time>
      </trkpt>
      <trkpt lat="37.866580" lon="-120.511400">
        <ele>325.088</ele>
        <time>2018-12-28T12:52:20Z</time>
      </trkpt>
      <trkpt lat="37.866660" lon="-120.511380">
        <ele>324.767</ele>
        <time>2018-12-28T12:52:40Z</time>
      </trkpt>
      <trkpt lat="37.866790" lon="-120.511340">
        <ele>324.461</ele>
        <time>2018-12-28T12:53:00Z</time>
      </trkpt>
      <trkpt lat="37.866990" lon="-120.511280">
        <ele>325.967</ele>
        <time>2018-12-28T12:53:20Z</time>
      </trkpt>
      <trkpt lat="37.867340" lon="-120.511150">
        <ele>327.414</ele>
        <time>2018-12-28T12:53:40Z</time>
      </trkpt>
      <trkpt lat="37.867770" lon="-120.510980">
        <ele>327.478</ele>
        <time>2018-12-28T12:54:00Z</time>
      </trkpt>
      <trkpt lat="37.868390" lon="-120.510740">
        <ele>329.124</ele>
        <time>2018-12-28T12:54:20Z</time>
      </trkpt>
      <trkpt lat="37.869020" lon="-120.510510">
        <ele>327.104</ele>
        <time>2018-12-28T12:54:40Z</time>
      </trkpt>
      <trkpt lat="37.869280" lon="-120.510400">
        <ele>328.814</ele>
        <time>2018-12-28T12:55:00Z</time>
      </trkpt>
      <trkpt lat="37.869660" lon="-120.510250">
        <ele>328.308</ele>
        <time>2018-12-28T12:55:20Z</time>
      </trkpt>
      <trkpt lat="37.869830" lon="-120.510180">
        <ele>328.945</ele>
        <time>2018-12-28T12:55:40Z</time>
      </trkpt>
      <trkpt lat="37.870340" lon="-120.509980">
        <ele>329.243</ele>
        <time>2018-12-28T12:56:00Z</time>
      </trkpt>
      <trkpt lat="37.870780" lon="-120.509810">
        <ele>327.378</ele>
        <time>2018-12-28T12:56:20Z</time>
      </trkpt>
      <trkpt lat="37.871710" lon="-120.509440">
        <ele>326.217</ele>
        <time>2018-12-28T12:56:40Z</time>
      </trkpt>
      <trkpt lat="37.873070" lon="-120.508910">
        <ele>323.371</ele>
        <time>2018-12-28T12:57:00Z</time>
      </trkpt>
      <trkpt lat="37.873820" lon="-120.508620">
        <ele>318.957</ele>
        <time>2018-12-28T12:57:20Z</time>
      </trkpt>
      <trkpt lat="37.874200" lon="-120.508480">
        <ele>318.934</ele>
        <time>2018-12-28T12:57:40Z</time>
      </trkpt>
      <trkpt lat="37.874280" lon="-120.508450">
        <ele>318.648</ele>
        <time>2018-12-28T12:58:00Z</time>
      </trkpt>
      <trkpt lat="37.874990" lon="-120.508150">
        <ele>318.519</ele>
        <time>2018-12-28T12:58:20Z</time>
      </trkpt>
      <trkpt lat="37.875520" lon="-120.507950">
        <ele>317.709</ele>
        <time>2018-12-28T12:58:40Z</time>
      </trkpt>
      <trkpt lat="37.876190" lon="-120.507690">
        <ele>318.319</ele>
        <time>2018-12-28T12:59:00Z</time>
      </trkpt>
      <trkpt lat="37.877460" lon="-120.507180">
        <ele>323.108</ele>
        <time>2018-12-28T12:59:20Z</time>
      </trkpt>
      <trkpt lat="37.878240" lon="-120.506870">
        <ele>326.724</ele>
        <time>2018-12-28T12:59:40Z</time>
      </trkpt>
      <trkpt lat="37.878910" lon="-120.506610">
        <ele>328.632</ele>
        <time>2018-12-28T13:00:00Z</time>
      </trkpt>
      <trkpt lat="37.879110" lon="-120.506540">
        <ele>328.427</ele>
        <time>2018-12-28T13:00:20Z</time>
      </trkpt>
      <trkpt lat="37.879430" lon="-120.506410">
        <ele>327.886</ele>
        <time>2018-12-28T13:00:40Z</time>
      </trkpt>
      <trkpt lat="37.879730" lon="-120.506290">
        <ele>329.510</ele>
        <time>2018-12-28T13:01:00Z</time>
      </trkpt>
      <trkpt lat="37.879960" lon="-120.506210">
        <ele>331.056</ele>
        <time>2018-12-28T13:01:20Z</time>
      </trkpt>
      <trkpt lat="37.880200" lon="-120.506100">
        <ele>331.213</ele>
        <time>2018-12-28T13:01:40Z</time>
      </trkpt>
      <trkpt lat="37.880330" lon="-120.506040">
        <ele>332.097</ele>
        <time>2018-12-28T13:02:00Z</time>
      </trkpt>
      <trkpt lat="37.880400" lon="-120.506010">
        <ele>332.646</ele>
        <time>2018-12-28T13:02:20Z</time>
      </trkpt>
      <trkpt lat="37.880460" lon="-120.505970">
        <ele>333.188</ele>
        <time>2018-12-28T13:02:40Z</time>
      </trkpt>
      <trkpt lat="37.880580" lon="-120.505910">
        <ele>333.616</ele>
        <time>2018-12-28T13:03:00Z</time>
      </trkpt>
      <trkpt lat="37.880690" lon="-120.505830">
        <ele>333.508</ele>
        <time>2018-12-28T13:03:20Z</time>
      </trkpt>
      <trkpt lat="37.880790" lon="-120.505770">
        <ele>333.367</ele>
        <time>2018-12-28T13:03:40Z</time>
      </trkpt>
      <trkpt lat="37.880910" lon="-120.505680">
        <ele>334.345</ele>
        <time>2018-12-28T13:04:00Z</time>
      </trkpt>
      <trkpt lat="37.881060" lon="-120.505560">
        <ele>333.310</ele>
        <time>2018-12-28T13:04:20Z</time>
      </trkpt>
      <trkpt lat="37.881170" lon="-120.505450">
        <ele>334.129</ele>
        <time>2018-12-28T13:04:40Z</time>
      </trkpt>
      <trkpt lat="37.881300" lon="-120.505330">
        <ele>335.233</ele>
        <time>2018-12-28T13:05:00Z</time>
      </trkpt>
      <trkpt lat="37.881440" lon="-120.505180">
        <ele>335.659</ele>
        <time>2018-12-28T13:05:20Z</time>
      </trkpt>
      <trkpt lat="37.881570" lon="-120.505030">
        <ele>335.916</ele>
        <time>2018-12-28T13:05:40Z</time>
      </trkpt>
      <trkpt lat="37.881710" lon="-120.504850">
        <ele>337.020</ele>
        <time>2018-12-28T13:06:00Z</time>
      </trkpt>
      <trkpt lat="37.881860" lon="-120.504630">
        <ele>334.899</ele>
        <time>2018-12-28T13:06:20Z</time>
      </trkpt>
      <trkpt lat="37.881970" lon="-120.504460">
        <ele>335.407</ele>
        <time>2018-12-28T13:06:40Z</time>
      </trkpt>
      <trkpt lat="37.882130" lon="-120.504180">
        <ele>335.127</ele>
        <time>2018-12-28T13:07:00Z</time>
      </trkpt>
      <trkpt lat="37.882200" lon="-120.504030">
        <ele>335.308</ele>
        <time>2018-12-28T13:07:20Z</time>
      </trkpt>
      <trkpt lat="37.882290" lon="-120.503850">
        <ele>335.852</ele>
        <time>2018-12-28T13:07:40Z</time>
      </trkpt>
      <trkpt lat="37.882680" lon="-120.503010">
        <ele>334.020</ele>
        <time>2018-12-28T13:08:00Z</time>
      </trkpt>
      <trkpt lat="37.882780" lon="-120.502820">
        <ele>333.365</ele>
        <time>2018-12-28T13:08:20Z</time>
      </trkpt>
      <trkpt lat="37.882950" lon="-120.502470">
        <ele>334.044</ele>
        <time>2018-12-28T13:08:40Z</time>
      </trkpt>
      <trkpt lat="37.883080" lon="-120.502230">
        <ele>333.998</ele>
        <time>2018-12-28T13:09:00Z</time>
      </trkpt>
      <trkpt lat="37.883260" lon="-120.501940">
        <ele>333.914</ele>
        <time>2018-12-28T13:09:20Z</time>
      </trkpt>
      <trkpt lat="37.883390" lon="-120.501750">
        <ele>334.131</ele>
        <time>2018-12-28T13:09:40Z</time>
      </trkpt>
      <trkpt lat="37.883500" lon="-120.501600">
        <ele>334.445</ele>
        <time>2018-12-28T13:10:00Z</time>
      </trkpt>
      <trkpt lat="37.883640" lon="-120.501420">
        <ele>335.057</ele>
        <time>2018-12-28T13:10:20Z</time>
      </trkpt>
      <trkpt lat="37.883990" lon="-120.500990">
        <ele>336.500</ele>
        <time>2018-12-28T13:10:40Z</time>
      </trkpt>
      <trkpt lat="37.884270" lon="-120.500640">
        <ele>337.620</ele>
        <time>2018-12-28T13:11:00Z</time>
      </trkpt>
      <trkpt lat="37.884430" lon="-120.500420">
        <ele>338.008</ele>
        <time>2018-12-28T13:11:20Z</time>
      </trkpt>
      <trkpt lat="37.884650" lon="-120.500140">
        <ele>339.148</ele>
        <time>2018-12-28T13:11:40Z</time>
      </trkpt>
      <trkpt lat="37.884710" lon="-120.500060">
        <ele>338.886</ele>
        <time>2018-12-28T13:12:00Z</time>
      </trkpt>
      <trkpt lat="37.885120" lon="-120.499540">
        <ele>342.741</ele>
        <time>2018-12-28T13:12:20Z</time>
      </trkpt>
      <trkpt lat="37.885460" lon="-120.499130">
        <ele>345.050</ele>
        <time>2018-12-28T13:12:40Z</time>
      </trkpt>
      <trkpt lat="37.885740" lon="-120.498770">
        <ele>347.324</ele>
        <time>2018-12-28T13:13:00Z</time>
      </trkpt>
      <trkpt lat="37.885790" lon="-120.498710">
        <ele>347.390</ele>
        <time>2018-12-28T13:13:20Z</time>
      </trkpt>
      <trkpt lat="37.886150" lon="-120.498260">
        <ele>349.957</ele>
        <time>2018-12-28T13:13:40Z</time>
      </trkpt>
      <trkpt lat="37.886650" lon="-120.497640">
        <ele>352.271</ele>
        <time>2018-12-28T13:14:00Z</time>
      </trkpt>
      <trkpt lat="37.887270" lon="-120.496880">
        <ele>351.755</ele>
        <time>2018-12-28T13:14:20Z</time>
      </trkpt>
      <trkpt lat="37.887390" lon="-120.496720">
        <ele>351.907</ele>
        <time>2018-12-28T13:14:40Z</time>
      </trkpt>
      <trkpt lat="37.887490" lon="-120.496580">
        <ele>351.617</ele>
        <time>2018-12-28T13:15:00Z</time>
      </trkpt>
      <trkpt lat="37.887620" lon="-120.496390">
        <ele>351.808</ele>
        <time>2018-12-28T13:15:20Z</time>
      </trkpt>
      <trkpt lat="37.887740" lon="-120.496220">
        <ele>351.318</ele>
        <time>2018-12-28T13:15:40Z</time>
      </trkpt>
      <trkpt lat="37.887880" lon="-120.496000">
        <ele>351.626</ele>
        <time>2018-12-28T13:16:00Z</time>
      </trkpt>
      <trkpt lat="37.887990" lon="-120.495810">
        <ele>351.091</ele>
        <time>2018-12-28T13:16:20Z</time>
      </trkpt>
      <trkpt lat="37.888060" lon="-120.495680">
        <ele>350.830</ele>
        <time>2018-12-28T13:16:40Z</time>
      </trkpt>
      <trkpt lat="37.888150" lon="-120.495500">
        <ele>351.194</ele>
        <time>2018-12-28T13:17:00Z</time>
      </trkpt>
      <trkpt lat="37.888330" lon="-120.495100">
        <ele>350.720</ele>
        <time>2018-12-28T13:17:20Z</time>
      </trkpt>
      <trkpt lat="37.888530" lon="-120.494670">
        <ele>351.147</ele>
        <time>2018-12-28T13:17:40Z</time>
      </trkpt>
      <trkpt lat="37.888970" lon="-120.493670">
        <ele>351.761</ele>
        <time>2018-12-28T13:18:00Z</time>
      </trkpt>
      <trkpt lat="37.890250" lon="-120.490820">
        <ele>353.942</ele>
        <time>2018-12-28T13:18:20Z</time>
      </trkpt>
      <trkpt lat="37.890450" lon="-120.490370">
        <ele>354.522</ele>
        <time>2018-12-28T13:18:40Z</time>
      </trkpt>
      <trkpt lat="37.890560" lon="-120.490110">
        <ele>354.314</ele>
        <time>2018-12-28T13:19:00Z</time>
      </trkpt>
      <trkpt lat="37.890660" lon="-120.489860">
        <ele>355.108</ele>
        <time>2018-12-28T13:19:20Z</time>
      </trkpt>
      <trkpt lat="37.890720" lon="-120.489690">
        <ele>355.227</ele>
        <time>2018-12-28T13:19:40Z</time>
      </trkpt>
      <trkpt lat="37.890810" lon="-120.489430">
        <ele>355.395</ele>
        <time>2018-12-28T13:20:00Z</time>
      </trkpt>
      <trkpt lat="37.890940" lon="-120.489070">
        <ele>355.950</ele>
        <time>2018-12-28T13:20:20Z</time>
      </trkpt>
      <trkpt lat="37.891050" lon="-120.488730">
        <ele>357.739</ele>
        <time>2018-12-28T13:20:40Z</time>
      </trkpt>
      <trkpt lat="37.891160" lon="-120.488400">
        <ele>357.613</ele>
        <time>2018-12-28T13:21:00Z</time>
      </trkpt>
      <trkpt lat="37.891200" lon="-120.488260">
        <ele>358.529</ele>
        <time>2018-12-28T13:21:20Z</time>
      </trkpt>
      <trkpt lat="37.891200" lon="-120.488262">
        <ele>358.586</ele>
        <time>2018-12-28T13:21:40Z</time>
      </trkpt>
      <trkpt lat="37.890770" lon="-120.488020">
        <ele>357.080</ele>
        <time>2018-12-28T13:22:00Z</time>
      </trkpt>
      <trkpt lat="37.890090" lon="-120.487610">
        <ele>356.923</ele>
        <time>2018-12-28T13:22:20Z</time>
      </trkpt>
      <trkpt lat="37.889810" lon="-120.487410">
        <ele>356.983</ele>
        <time>2018-12-28T13:22:40Z</time>
      </trkpt>
      <trkpt lat="37.889390" lon="-120.487120">
        <ele>357.211</ele>
        <time>2018-12-28T13:23:00Z</time>
      </trkpt>
      <trkpt lat="37.889050" lon="-120.486890">
        <ele>357.308</ele>
        <time>2018-12-28T13:23:20Z</time>
      </trkpt>
      <trkpt lat="37.888800" lon="-120.486710">
        <ele>358.795</ele>
        <time>2018-12-28T13:23:40Z</time>
      </trkpt>
      <trkpt lat="37.888560" lon="-120.486550">
        <ele>361.293</ele>
        <time>2018-12-28T13:24:00Z</time>
      </trkpt>
      <trkpt lat="37.888390" lon="-120.486440">
        <ele>363.118</ele>
        <time>2018-12-28T13:24:20Z</time>
      </trkpt>
      <trkpt lat="37.887920" lon="-120.486130">
        <ele>367.437</ele>
        <time>2018-12-28T13:24:40Z</time>
      </trkpt>
      <trkpt lat="37.887470" lon="-120.485820">
        <ele>367.351</ele>
        <time>2018-12-28T13:25:00Z</time>
      </trkpt>
      <trkpt lat="37.887460" lon="-120.485810">
        <ele>367.367</ele>
        <time>2018-12-28T13:25:20Z</time>
      </trkpt>
      <trkpt lat="37.887060" lon="-120.485530">
        <ele>366.224</ele>
        <time>2018-12-28T13:25:40Z</time>
      </trkpt>
      <trkpt lat="37.886840" lon="-120.485360">
        <ele>366.748</ele>
        <time>2018-12-28T13:26:00Z</time>
      </trkpt>
      <trkpt lat="37.886640" lon="-120.485200">
        <ele>367.375</ele>
        <time>2018-12-28T13:26:20Z</time>
      </trkpt>
      <trkpt lat="37.886540" lon="-120.485100">
        <ele>367.928</ele>
        <time>2018-12-28T13:26:40Z</time>
      </trkpt>
      <trkpt lat="37.886340" lon="-120.484910">
        <ele>368.920</ele>
        <time>2018-12-28T13:27:00Z</time>
      </trkpt>
      <trkpt lat="37.886100" lon="-120.484630">
        <ele>370.108</ele>
        <time>2018-12-28T13:27:20Z</time>
      </trkpt>
      <trkpt lat="37.885860" lon="-120.484330">
        <ele>372.130</ele>
        <time>2018-12-28T13:27:40Z</time>
      </trkpt>
      <trkpt lat="37.885530" lon="-120.483910">
        <ele>375.268</ele>
        <time>2018-12-28T13:28:00Z</time>
      </trkpt>
      <trkpt lat="37.885120" lon="-120.483360">
        <ele>377.493</ele>
        <time>2018-12-28T13:28:20Z</time>
      </trkpt>
      <trkpt lat="37.884780" lon="-120.482930">
        <ele>379.872</ele>
        <time>2018-12-28T13:28:40Z</time>
      </trkpt>
      <trkpt lat="37.884400" lon="-120.482430">
        <ele>380.916</ele>
        <time>2018-12-28T13:29:00Z</time>
      </trkpt>
      <trkpt lat="37.884110" lon="-120.482050">
        <ele>382.172</ele>
        <time>2018-12-28T13:29:20Z</time>
      </trkpt>
      <trkpt lat="37.883310" lon="-120.480990">
        <ele>385.149</ele>
        <time>2018-12-28T13:29:40Z</time>
      </trkpt>
      <trkpt lat="37.882810" lon="-120.480330">
        <ele>387.923</ele>
        <time>2018-12-28T13:30:00Z</time>
      </trkpt>
      <trkpt lat="37.882300" lon="-120.479660">
        <ele>387.559</ele>
        <time>2018-12-28T13:30:20Z</time>
      </trkpt>
      <trkpt lat="37.882090" lon="-120.479390">
        <ele>387.903</ele>
        <time>2018-12-28T13:30:40Z</time>
      </trkpt>
      <trkpt lat="37.882010" lon="-120.479280">
        <ele>387.923</ele>
        <time>2018-12-28T13:31:00Z</time>
      </trkpt>
      <trkpt lat="37.881940" lon="-120.479160">
        <ele>387.608</ele>
        <time>2018-12-28T13:31:20Z</time>
      </trkpt>
      <trkpt lat="37.881880" lon="-120.479060">
        <ele>387.448</ele>
        <time>2018-12-28T13:31:40Z</time>
      </trkpt>
      <trkpt lat="37.881830" lon="-120.478970">
        <ele>387.386</ele>
        <time>2018-12-28T13:32:00Z</time>
      </trkpt>
      <trkpt lat="37.881760" lon="-120.478830">
        <ele>387.281</ele>
        <time>2018-12-28T13:32:20Z</time>
      </trkpt>
      <trkpt lat="37.881650" lon="-120.478600">
        <ele>386.930</ele>
        <time>2018-12-28T13:32:40Z</time>
      </trkpt>
      <trkpt lat="37.881580" lon="-120.478450">
        <ele>387.074</ele>
        <time>2018-12-28T13:33:00Z</time>
      </trkpt>
      <trkpt lat="37.881540" lon="-120.478340">
        <ele>387.550</ele>
        <time>2018-12-28T13:33:20Z</time>
      </trkpt>
      <trkpt lat="37.881460" lon="-120.478120">
        <ele>388.167</ele>
        <time>2018-12-28T13:33:40Z</time>
      </trkpt>
      <trkpt lat="37.881420" lon="-120.478000">
        <ele>388.871</ele>
        <time>2018-12-28T13:34:00Z</time>
      </trkpt>
      <trkpt lat="37.881390" lon="-120.477880">
        <ele>389.639</ele>
        <time>2018-12-28T13:34:20Z</time>
      </trkpt>
      <trkpt lat="37.881360" lon="-120.477740">
        <ele>390.601</ele>
        <time>2018-12-28T13:34:40Z</time>
      </trkpt>
      <trkpt lat="37.881330" lon="-120.477600">
        <ele>391.721</ele>
        <time>2018-12-28T13:35:00Z</time>
      </trkpt>
      <trkpt lat="37.881300" lon="-120.477460">
        <ele>392.808</ele>
        <time>2018-12-28T13:35:20Z</time>
      </trkpt>
      <trkpt lat="37.881270" lon="-120.477260">
        <ele>394.376</ele>
        <time>2018-12-28T13:35:40Z</time>
      </trkpt>
      <trkpt lat="37.881230" lon="-120.476960">
        <ele>396.034</ele>
        <time>2018-12-28T13:36:00Z</time>
      </trkpt>
      <trkpt lat="37.881110" lon="-120.475760">
        <ele>401.379</ele>
        <time>2018-12-28T13:36:20Z</time>
      </trkpt>
      <trkpt lat="37.880990" lon="-120.474460">
        <ele>403.998</ele>
        <time>2018-12-28T13:36:40Z</time>
      </trkpt>
      <trkpt lat="37.880900" lon="-120.473660">
        <ele>397.932</ele>
        <time>2018-12-28T13:37:00Z</time>
      </trkpt>
      <trkpt lat="37.880810" lon="-120.472930">
        <ele>394.678</ele>
        <time>2018-12-28T13:37:20Z</time>
      </trkpt>
      <trkpt lat="37.880570" lon="-120.470750">
        <ele>386.745</ele>
        <time>2018-12-28T13:37:40Z</time>
      </trkpt>
      <trkpt lat="37.880400" lon="-120.469250">
        <ele>387.399</ele>
        <time>2018-12-28T13:38:00Z</time>
      </trkpt>
      <trkpt lat="37.880260" lon="-120.468000">
        <ele>389.231</ele>
        <time>2018-12-28T13:38:20Z</time>
      </trkpt>
      <trkpt lat="37.880200" lon="-120.467540">
        <ele>390.461</ele>
        <time>2018-12-28T13:38:40Z</time>
      </trkpt>
      <trkpt lat="37.880120" lon="-120.466940">
        <ele>390.907</ele>
        <time>2018-12-28T13:39:00Z</time>
      </trkpt>
      <trkpt lat="37.879950" lon="-120.465780">
        <ele>392.108</ele>
        <time>2018-12-28T13:39:20Z</time>
      </trkpt>
      <trkpt lat="37.879840" lon="-120.464990">
        <ele>392.156</ele>
        <time>2018-12-28T13:39:40Z</time>
      </trkpt>
      <trkpt lat="37.879720" lon="-120.464240">
        <ele>390.034</ele>
        <time>2018-12-28T13:40:00Z</time>
      </trkpt>
      <trkpt lat="37.879670" lon="-120.463960">
        <ele>387.869</ele>
        <time>2018-12-28T13:40:20Z</time>
      </trkpt>
      <trkpt lat="37.879620" lon="-120.463680">
        <ele>385.718</ele>
        <time>2018-12-28T13:40:40Z</time>
      </trkpt>
      <trkpt lat="37.879590" lon="-120.463560">
        <ele>384.982</ele>
        <time>2018-12-28T13:41:00Z</time>
      </trkpt>
      <trkpt lat="37.879560" lon="-120.463460">
        <ele>384.128</ele>
        <time>2018-12-28T13:41:20Z</time>
      </trkpt>
      <trkpt lat="37.879540" lon="-120.463380">
        <ele>383.655</ele>
        <time>2018-12-28T13:41:40Z</time>
      </trkpt>
      <trkpt lat="37.879520" lon="-120.463300">
        <ele>383.149</ele>
        <time>2018-12-28T13:42:00Z</time>
      </trkpt>
      <trkpt lat="37.879500" lon="-120.463220">
        <ele>382.611</ele>
        <time>2018-12-28T13:42:20Z</time>
      </trkpt>
      <trkpt lat="37.879470" lon="-120.463130">
        <ele>382.221</ele>
        <time>2018-12-28T13:42:40Z</time>
      </trkpt>
      <trkpt lat="37.879450" lon="-120.463050">
        <ele>382.103</ele>
        <time>2018-12-28T13:43:00Z</time>
      </trkpt>
      <trkpt lat="37.879430" lon="-120.462990">
        <ele>382.008</ele>
        <time>2018-12-28T13:43:20Z</time>
      </trkpt>
      <trkpt lat="37.879380" lon="-120.462880">
        <ele>381.794</ele>
        <time>2018-12-28T13:43:40Z</time>
      </trkpt>
      <trkpt lat="37.879260" lon="-120.462610">
        <ele>380.192</ele>
        <time>2018-12-28T13:44:00Z</time>
      </trkpt>
      <trkpt lat="37.879240" lon="-120.462580">
        <ele>379.867</ele>
        <time>2018-12-28T13:44:20Z</time>
      </trkpt>
      <trkpt lat="37.879090" lon="-120.462310">
        <ele>377.856</ele>
        <time>2018-12-28T13:44:40Z</time>
      </trkpt>
      <trkpt lat="37.878820" lon="-120.461800">
        <ele>374.060</ele>
        <time>2018-12-28T13:45:00Z</time>
      </trkpt>
      <trkpt lat="37.878620" lon="-120.461420">
        <ele>371.596</ele>
        <time>2018-12-28T13:45:20Z</time>
      </trkpt>
      <trkpt lat="37.878290" lon="-120.460820">
        <ele>368.413</ele>
        <time>2018-12-28T13:45:40Z</time>
      </trkpt>
      <trkpt lat="37.878160" lon="-120.460560">
        <ele>367.267</ele>
        <time>2018-12-28T13:46:00Z</time>
      </trkpt>
      <trkpt lat="37.878100" lon="-120.460390">
        <ele>366.699</ele>
        <time>2018-12-28T13:46:20Z</time>
      </trkpt>
      <trkpt lat="37.878050" lon="-120.460220">
        <ele>366.507</ele>
        <time>2018-12-28T13:46:40Z</time>
      </trkpt>
      <trkpt lat="37.878020" lon="-120.460110">
        <ele>366.627</ele>
        <time>2018-12-28T13:47:00Z</time>
      </trkpt>
      <trkpt lat="37.878010" lon="-120.460040">
        <ele>366.608</ele>
        <time>2018-12-28T13:47:20Z</time>
      </trkpt>
      <trkpt lat="37.878000" lon="-120.459980">
        <ele>366.632</ele>
        <time>2018-12-28T13:47:40Z</time>
      </trkpt>
      <trkpt lat="37.878000" lon="-120.459930">
        <ele>366.630</ele>
        <time>2018-12-28T13:48:00Z</time>
      </trkpt>
      <trkpt lat="37.877990" lon="-120.459870">
        <ele>366.795</ele>
        <time>2018-12-28T13:48:20Z</time>
      </trkpt>
      <trkpt lat="37.877990" lon="-120.459830">
        <ele>366.794</ele>
        <time>2018-12-28T13:48:40Z</time>
      </trkpt>
      <trkpt lat="37.877990" lon="-120.459800">
        <ele>366.668</ele>
        <time>2018-12-28T13:49:00Z</time>
      </trkpt>
      <trkpt lat="37.878000" lon="-120.459780">
        <ele>366.634</ele>
        <time>2018-12-28T13:49:20Z</time>
      </trkpt>
      <trkpt lat="37.878000" lon="-120.459720">
        <ele>366.521</ele>
        <time>2018-12-28T13:49:40Z</time>
      </trkpt>
      <trkpt lat="37.878010" lon="-120.459640">
        <ele>366.455</ele>
        <time>2018-12-28T13:50:00Z</time>
      </trkpt>
      <trkpt lat="37.878020" lon="-120.459550">
        <ele>366.232</ele>
        <time>2018-12-28T13:50:20Z</time>
      </trkpt>
      <trkpt lat="37.878030" lon="-120.459490">
        <ele>366.192</ele>
        <time>2018-12-28T13:50:40Z</time>
      </trkpt>
      <trkpt lat="37.878040" lon="-120.459440">
        <ele>365.911</ele>
        <time>2018-12-28T13:51:00Z</time>
      </trkpt>
      <trkpt lat="37.878060" lon="-120.459390">
        <ele>365.708</ele>
        <time>2018-12-28T13:51:20Z</time>
      </trkpt>
      <trkpt lat="37.878090" lon="-120.459320">
        <ele>365.496</ele>
        <time>2018-12-28T13:51:40Z</time>
      </trkpt>
      <trkpt lat="37.878110" lon="-120.459250">
        <ele>365.354</ele>
        <time>2018-12-28T13:52:00Z</time>
      </trkpt>
      <trkpt lat="37.878160" lon="-120.459150">
        <ele>365.399</ele>
        <time>2018-12-28T13:52:20Z</time>
      </trkpt>
      <trkpt lat="37.878210" lon="-120.459060">
        <ele>365.478</ele>
        <time>2018-12-28T13:52:40Z</time>
      </trkpt>
      <trkpt lat="37.878230" lon="-120.459020">
        <ele>365.512</ele>
        <time>2018-12-28T13:53:00Z</time>
      </trkpt>
      <trkpt lat="37.878260" lon="-120.458980">
        <ele>365.328</ele>
        <time>2018-12-28T13:53:20Z</time>
      </trkpt>
      <trkpt lat="37.878290" lon="-120.458930">
        <ele>365.185</ele>
        <time>2018-12-28T13:53:40Z</time>
      </trkpt>
      <trkpt lat="37.878330" lon="-120.458880">
        <ele>364.819</ele>
        <time>2018-12-28T13:54:00Z</time>
      </trkpt>
      <trkpt lat="37.878590" lon="-120.458570">
        <ele>363.376</ele>
        <time>2018-12-28T13:54:20Z</time>
      </trkpt>
      <trkpt lat="37.879200" lon="-120.457790">
        <ele>362.290</ele>
        <time>2018-12-28T13:54:40Z</time>
      </trkpt>
      <trkpt lat="37.879640" lon="-120.457240">
        <ele>362.219</ele>
        <time>2018-12-28T13:55:00Z</time>
      </trkpt>
      <trkpt lat="37.879810" lon="-120.457010">
        <ele>362.208</ele>
        <time>2018-12-28T13:55:20Z</time>
      </trkpt>
      <trkpt lat="37.879870" lon="-120.456930">
        <ele>362.220</ele>
        <time>2018-12-28T13:55:40Z</time>
      </trkpt>
      <trkpt lat="37.879910" lon="-120.456860">
        <ele>362.188</ele>
        <time>2018-12-28T13:56:00Z</time>
      </trkpt>
      <trkpt lat="37.879950" lon="-120.456780">
        <ele>362.073</ele>
        <time>2018-12-28T13:56:20Z</time>
      </trkpt>
      <trkpt lat="37.879990" lon="-120.456700">
        <ele>362.042</ele>
        <time>2018-12-28T13:56:40Z</time>
      </trkpt>
      <trkpt lat="37.880010" lon="-120.456620">
        <ele>361.936</ele>
        <time>2018-12-28T13:57:00Z</time>
      </trkpt>
      <trkpt lat="37.880040" lon="-120.456540">
        <ele>361.872</ele>
        <time>2018-12-28T13:57:20Z</time>
      </trkpt>
      <trkpt lat="37.880050" lon="-120.456460">
        <ele>361.739</ele>
        <time>2018-12-28T13:57:40Z</time>
      </trkpt>
      <trkpt lat="37.880060" lon="-120.456410">
        <ele>361.733</ele>
        <time>2018-12-28T13:58:00Z</time>
      </trkpt>
      <trkpt lat="37.880070" lon="-120.456340">
        <ele>361.863</ele>
        <time>2018-12-28T13:58:20Z</time>
      </trkpt>
      <trkpt lat="37.880070" lon="-120.456260">
        <ele>361.844</ele>
        <time>2018-12-28T13:58:40Z</time>
      </trkpt>
      <trkpt lat="37.880060" lon="-120.456170">
        <ele>361.518</ele>
        <time>2018-12-28T13:59:00Z</time>
      </trkpt>
      <trkpt lat="37.880060" lon="-120.456120">
        <ele>361.308</ele>
        <time>2018-12-28T13:59:20Z</time>
      </trkpt>
      <trkpt lat="37.880050" lon="-120.456040">
        <ele>360.999</ele>
        <time>2018-12-28T13:59:40Z</time>
      </trkpt>
      <trkpt lat="37.880030" lon="-120.455960">
        <ele>360.887</ele>
        <time>2018-12-28T14:00:00Z</time>
      </trkpt>
      <trkpt lat="37.880000" lon="-120.455860">
        <ele>360.912</ele>
        <time>2018-12-28T14:00:20Z</time>
      </trkpt>
      <trkpt lat="37.879980" lon="-120.455760">
        <ele>361.091</ele>
        <time>2018-12-28T14:00:40Z</time>
      </trkpt>
      <trkpt lat="37.879930" lon="-120.455620">
        <ele>361.115</ele>
        <time>2018-12-28T14:01:00Z</time>
      </trkpt>
      <trkpt lat="37.879540" lon="-120.454410">
        <ele>360.121</ele>
        <time>2018-12-28T14:01:20Z</time>
      </trkpt>
      <trkpt lat="37.878520" lon="-120.451270">
        <ele>358.278</ele>
        <time>2018-12-28T14:01:40Z</time>
      </trkpt>
      <trkpt lat="37.878380" lon="-120.450880">
        <ele>357.732</ele>
        <time>2018-12-28T14:02:00Z</time>
      </trkpt>
      <trkpt lat="37.878300" lon="-120.450640">
        <ele>357.322</ele>
        <time>2018-12-28T14:02:20Z</time>
      </trkpt>
      <trkpt lat="37.878010" lon="-120.449860">
        <ele>356.962</ele>
        <time>2018-12-28T14:02:40Z</time>
      </trkpt>
      <trkpt lat="37.877880" lon="-120.449510">
        <ele>356.408</ele>
        <time>2018-12-28T14:03:00Z</time>
      </trkpt>
      <trkpt lat="37.877840" lon="-120.449350">
        <ele>355.608</ele>
        <time>2018-12-28T14:03:20Z</time>
      </trkpt>
      <trkpt lat="37.877810" lon="-120.449250">
        <ele>355.485</ele>
        <time>2018-12-28T14:03:40Z</time>
      </trkpt>
      <trkpt lat="37.877780" lon="-120.449120">
        <ele>355.553</ele>
        <time>2018-12-28T14:04:00Z</time>
      </trkpt>
      <trkpt lat="37.877720" lon="-120.448860">
        <ele>356.748</ele>
        <time>2018-12-28T14:04:20Z</time>
      </trkpt>
      <trkpt lat="37.877680" lon="-120.448550">
        <ele>357.977</ele>
        <time>2018-12-28T14:04:40Z</time>
      </trkpt>
      <trkpt lat="37.877660" lon="-120.448380">
        <ele>358.291</ele>
        <time>2018-12-28T14:05:00Z</time>
      </trkpt>
      <trkpt lat="37.877650" lon="-120.448150">
        <ele>358.687</ele>
        <time>2018-12-28T14:05:20Z</time>
      </trkpt>
      <trkpt lat="37.877650" lon="-120.447750">
        <ele>359.794</ele>
        <time>2018-12-28T14:05:40Z</time>
      </trkpt>
      <trkpt lat="37.877640" lon="-120.446330">
        <ele>365.878</ele>
        <time>2018-12-28T14:06:00Z</time>
      </trkpt>
      <trkpt lat="37.877610" lon="-120.445850">
        <ele>366.152</ele>
        <time>2018-12-28T14:06:20Z</time>
      </trkpt>
      <trkpt lat="37.877600" lon="-120.445690">
        <ele>366.253</ele>
        <time>2018-12-28T14:06:40Z</time>
      </trkpt>
      <trkpt lat="37.877590" lon="-120.445510">
        <ele>366.308</ele>
        <time>2018-12-28T14:07:00Z</time>
      </trkpt>
      <trkpt lat="37.877570" lon="-120.445340">
        <ele>366.608</ele>
        <time>2018-12-28T14:07:20Z</time>
      </trkpt>
      <trkpt lat="37.877540" lon="-120.445130">
        <ele>367.188</ele>
        <time>2018-12-28T14:07:40Z</time>
      </trkpt>
      <trkpt lat="37.877490" lon="-120.444800">
        <ele>368.486</ele>
        <time>2018-12-28T14:08:00Z</time>
      </trkpt>
      <trkpt lat="37.877450" lon="-120.444570">
        <ele>369.541</ele>
        <time>2018-12-28T14:08:20Z</time>
      </trkpt>
      <trkpt lat="37.877410" lon="-120.444400">
        <ele>370.310</ele>
        <time>2018-12-28T14:08:40Z</time>
      </trkpt>
      <trkpt lat="37.877370" lon="-120.444220">
        <ele>371.264</ele>
        <time>2018-12-28T14:09:00Z</time>
      </trkpt>
      <trkpt lat="37.877290" lon="-120.443880">
        <ele>373.150</ele>
        <time>2018-12-28T14:09:20Z</time>
      </trkpt>
      <trkpt lat="37.877150" lon="-120.443350">
        <ele>375.967</ele>
        <time>2018-12-28T14:09:40Z</time>
      </trkpt>
      <trkpt lat="37.876910" lon="-120.442550">
        <ele>376.471</ele>
        <time>2018-12-28T14:10:00Z</time>
      </trkpt>
      <trkpt lat="37.876870" lon="-120.442380">
        <ele>376.248</ele>
        <time>2018-12-28T14:10:20Z</time>
      </trkpt>
      <trkpt lat="37.876790" lon="-120.442050">
        <ele>376.961</ele>
        <time>2018-12-28T14:10:40Z</time>
      </trkpt>
      <trkpt lat="37.876750" lon="-120.441880">
        <ele>377.017</ele>
        <time>2018-12-28T14:11:00Z</time>
      </trkpt>
      <trkpt lat="37.876710" lon="-120.441670">
        <ele>377.308</ele>
        <time>2018-12-28T14:11:20Z</time>
      </trkpt>
      <trkpt lat="37.876640" lon="-120.441300">
        <ele>377.757</ele>
        <time>2018-12-28T14:11:40Z</time>
      </trkpt>
      <trkpt lat="37.876510" lon="-120.440660">
        <ele>378.355</ele>
        <time>2018-12-28T14:12:00Z</time>
      </trkpt>
      <trkpt lat="37.876300" lon="-120.439720">
        <ele>375.770</ele>
        <time>2018-12-28T14:12:20Z</time>
      </trkpt>
      <trkpt lat="37.876220" lon="-120.439430">
        <ele>375.639</ele>
        <time>2018-12-28T14:12:40Z</time>
      </trkpt>
      <trkpt lat="37.876040" lon="-120.438700">
        <ele>377.483</ele>
        <time>2018-12-28T14:13:00Z</time>
      </trkpt>
      <trkpt lat="37.875940" lon="-120.438370">
        <ele>378.539</ele>
        <time>2018-12-28T14:13:20Z</time>
      </trkpt>
      <trkpt lat="37.875800" lon="-120.437880">
        <ele>379.936</ele>
        <time>2018-12-28T14:13:40Z</time>
      </trkpt>
      <trkpt lat="37.875740" lon="-120.437680">
        <ele>380.260</ele>
        <time>2018-12-28T14:14:00Z</time>
      </trkpt>
      <trkpt lat="37.875620" lon="-120.437320">
        <ele>380.174</ele>
        <time>2018-12-28T14:14:20Z</time>
      </trkpt>
      <trkpt lat="37.875480" lon="-120.436910">
        <ele>380.256</ele>
        <time>2018-12-28T14:14:40Z</time>
      </trkpt>
      <trkpt lat="37.875200" lon="-120.436140">
        <ele>380.421</ele>
        <time>2018-12-28T14:15:00Z</time>
      </trkpt>
      <trkpt lat="37.874690" lon="-120.434730">
        <ele>384.808</ele>
        <time>2018-12-28T14:15:20Z</time>
      </trkpt>
      <trkpt lat="37.874690" lon="-120.434731">
        <ele>384.880</ele>
        <time>2018-12-28T14:15:40Z</time>
      </trkpt>
      <trkpt lat="37.874580" lon="-120.434460">
        <ele>385.718</ele>
        <time>2018-12-28T14:16:00Z</time>
      </trkpt>
      <trkpt lat="37.874540" lon="-120.434350">
        <ele>385.843</ele>
        <time>2018-12-28T14:16:20Z</time>
      </trkpt>
      <trkpt lat="37.874490" lon="-120.434260">
        <ele>385.882</ele>
        <time>2018-12-28T14:16:40Z</time>
      </trkpt>
      <trkpt lat="37.874450" lon="-120.434180">
        <ele>385.956</ele>
        <time>2018-12-28T14:17:00Z</time>
      </trkpt>
      <trkpt lat="37.874400" lon="-120.434100">
        <ele>386.062</ele>
        <time>2018-12-28T14:17:20Z</time>
      </trkpt>
      <trkpt lat="37.874350" lon="-120.434030">
        <ele>386.129</ele>
        <time>2018-12-28T14:17:40Z</time>
      </trkpt>
      <trkpt lat="37.874290" lon="-120.433960">
        <ele>386.083</ele>
        <time>2018-12-28T14:18:00Z</time>
      </trkpt>
      <trkpt lat="37.874180" lon="-120.433830">
        <ele>386.037</ele>
        <time>2018-12-28T14:18:20Z</time>
      </trkpt>
      <trkpt lat="37.873340" lon="-120.432820">
        <ele>389.049</ele>
        <time>2018-12-28T14:18:40Z</time>
      </trkpt>
      <trkpt lat="37.872760" lon="-120.432110">
        <ele>390.513</ele>
        <time>2018-12-28T14:19:00Z</time>
      </trkpt>
      <trkpt lat="37.872600" lon="-120.431910">
        <ele>390.508</ele>
        <time>2018-12-28T14:19:20Z</time>
      </trkpt>
      <trkpt lat="37.872430" lon="-120.431740">
        <ele>390.056</ele>
        <time>2018-12-28T14:19:40Z</time>
      </trkpt>
      <trkpt lat="37.872260" lon="-120.431590">
        <ele>389.644</ele>
        <time>2018-12-28T14:20:00Z</time>
      </trkpt>
      <trkpt lat="37.872160" lon="-120.431520">
        <ele>389.489</ele>
        <time>2018-12-28T14:20:20Z</time>
      </trkpt>
      <trkpt lat="37.872060" lon="-120.431450">
        <ele>389.188</ele>
        <time>2018-12-28T14:20:40Z</time>
      </trkpt>
      <trkpt lat="37.871980" lon="-120.431400">
        <ele>389.112</ele>
        <time>2018-12-28T14:21:00Z</time>
      </trkpt>
      <trkpt lat="37.871890" lon="-120.431350">
        <ele>389.188</ele>
        <time>2018-12-28T14:21:20Z</time>
      </trkpt>
      <trkpt lat="37.871770" lon="-120.431290">
        <ele>389.245</ele>
        <time>2018-12-28T14:21:40Z</time>
      </trkpt>
      <trkpt lat="37.871610" lon="-120.431230">
        <ele>389.379</ele>
        <time>2018-12-28T14:22:00Z</time>
      </trkpt>
      <trkpt lat="37.871500" lon="-120.431200">
        <ele>389.276</ele>
        <time>2018-12-28T14:22:20Z</time>
      </trkpt>
      <trkpt lat="37.871380" lon="-120.431170">
        <ele>389.590</ele>
        <time>2018-12-28T14:22:40Z</time>
      </trkpt>
      <trkpt lat="37.871270" lon="-120.431160">
        <ele>389.819</ele>
        <time>2018-12-28T14:23:00Z</time>
      </trkpt>
      <trkpt lat="37.871150" lon="-120.431150">
        <ele>390.408</ele>
        <time>2018-12-28T14:23:20Z</time>
      </trkpt>
      <trkpt lat="37.871020" lon="-120.431160">
        <ele>390.920</ele>
        <time>2018-12-28T14:23:40Z</time>
      </trkpt>
      <trkpt lat="37.870890" lon="-120.431170">
        <ele>391.318</ele>
        <time>2018-12-28T14:24:00Z</time>
      </trkpt>
      <trkpt lat="37.870760" lon="-120.431200">
        <ele>391.483</ele>
        <time>2018-12-28T14:24:20Z</time>
      </trkpt>
      <trkpt lat="37.870670" lon="-120.431220">
        <ele>391.532</ele>
        <time>2018-12-28T14:24:40Z</time>
      </trkpt>
      <trkpt lat="37.870200" lon="-120.431350">
        <ele>392.196</ele>
        <time>2018-12-28T14:25:00Z</time>
      </trkpt>
      <trkpt lat="37.869770" lon="-120.431480">
        <ele>392.772</ele>
        <time>2018-12-28T14:25:20Z</time>
      </trkpt>
      <trkpt lat="37.869660" lon="-120.431510">
        <ele>392.069</ele>
        <time>2018-12-28T14:25:40Z</time>
      </trkpt>
      <trkpt lat="37.869550" lon="-120.431530">
        <ele>391.573</ele>
        <time>2018-12-28T14:26:00Z</time>
      </trkpt>
      <trkpt lat="37.869480" lon="-120.431540">
        <ele>391.464</ele>
        <time>2018-12-28T14:26:20Z</time>
      </trkpt>
      <trkpt lat="37.869390" lon="-120.431530">
        <ele>391.506</ele>
        <time>2018-12-28T14:26:40Z</time>
      </trkpt>
      <trkpt lat="37.869330" lon="-120.431530">
        <ele>391.416</ele>
        <time>2018-12-28T14:27:00Z</time>
      </trkpt>
      <trkpt lat="37.869250" lon="-120.431520">
        <ele>391.508</ele>
        <time>2018-12-28T14:27:20Z</time>
      </trkpt>
      <trkpt lat="37.869190" lon="-120.431510">
        <ele>391.519</ele>
        <time>2018-12-28T14:27:40Z</time>
      </trkpt>
      <trkpt lat="37.869140" lon="-120.431490">
        <ele>391.437</ele>
        <time>2018-12-28T14:28:00Z</time>
      </trkpt>
      <trkpt lat="37.869050" lon="-120.431470">
        <ele>391.362</ele>
        <time>2018-12-28T14:28:20Z</time>
      </trkpt>
      <trkpt lat="37.869000" lon="-120.431460">
        <ele>391.171</ele>
        <time>2018-12-28T14:28:40Z</time>
      </trkpt>
      <trkpt lat="37.868950" lon="-120.431440">
        <ele>390.715</ele>
        <time>2018-12-28T14:29:00Z</time>
      </trkpt>
      <trkpt lat="37.868880" lon="-120.431410">
        <ele>390.481</ele>
        <time>2018-12-28T14:29:20Z</time>
      </trkpt>
      <trkpt lat="37.868840" lon="-120.431390">
        <ele>390.258</ele>
        <time>2018-12-28T14:29:40Z</time>
      </trkpt>
      <trkpt lat="37.868780" lon="-120.431350">
        <ele>390.212</ele>
        <time>2018-12-28T14:30:00Z</time>
      </trkpt>
      <trkpt lat="37.868740" lon="-120.431330">
        <ele>390.354</ele>
        <time>2018-12-28T14:30:20Z</time>
      </trkpt>
      <trkpt lat="37.868580" lon="-120.431220">
        <ele>391.156</ele>
        <time>2018-12-28T14:30:40Z</time>
      </trkpt>
      <trkpt lat="37.868070" lon="-120.430820">
        <ele>392.411</ele>
        <time>2018-12-28T14:31:00Z</time>
      </trkpt>
      <trkpt lat="37.867390" lon="-120.430230">
        <ele>394.608</ele>
        <time>2018-12-28T14:31:20Z</time>
      </trkpt>
      <trkpt lat="37.866270" lon="-120.429240">
        <ele>398.098</ele>
        <time>2018-12-28T14:31:40Z</time>
      </trkpt>
      <trkpt lat="37.865780" lon="-120.428800">
        <ele>398.736</ele>
        <time>2018-12-28T14:32:00Z</time>
      </trkpt>
      <trkpt lat="37.865490" lon="-120.428550">
        <ele>398.361</ele>
        <time>2018-12-28T14:32:20Z</time>
      </trkpt>
      <trkpt lat="37.865340" lon="-120.428420">
        <ele>398.880</ele>
        <time>2018-12-28T14:32:40Z</time>
      </trkpt>
      <trkpt lat="37.865050" lon="-120.428160">
        <ele>398.954</ele>
        <time>2018-12-28T14:33:00Z</time>
      </trkpt>
      <trkpt lat="37.863900" lon="-120.427140">
        <ele>398.120</ele>
        <time>2018-12-28T14:33:20Z</time>
      </trkpt>
      <trkpt lat="37.863470" lon="-120.426760">
        <ele>399.857</ele>
        <time>2018-12-28T14:33:40Z</time>
      </trkpt>
      <trkpt lat="37.862860" lon="-120.426230">
        <ele>401.191</ele>
        <time>2018-12-28T14:34:00Z</time>
      </trkpt>
      <trkpt lat="37.862660" lon="-120.426050">
        <ele>401.287</ele>
        <time>2018-12-28T14:34:20Z</time>
      </trkpt>
      <trkpt lat="37.862480" lon="-120.425900">
        <ele>401.442</ele>
        <time>2018-12-28T14:34:40Z</time>
      </trkpt>
      <trkpt lat="37.861600" lon="-120.425120">
        <ele>401.826</ele>
        <time>2018-12-28T14:35:00Z</time>
      </trkpt>
      <trkpt lat="37.861360" lon="-120.424880">
        <ele>401.908</ele>
        <time>2018-12-28T14:35:20Z</time>
      </trkpt>
      <trkpt lat="37.861110" lon="-120.424640">
        <ele>401.841</ele>
        <time>2018-12-28T14:35:40Z</time>
      </trkpt>
      <trkpt lat="37.860750" lon="-120.424270">
        <ele>401.139</ele>
        <time>2018-12-28T14:36:00Z</time>
      </trkpt>
      <trkpt lat="37.860450" lon="-120.423940">
        <ele>400.644</ele>
        <time>2018-12-28T14:36:20Z</time>
      </trkpt>
      <trkpt lat="37.860300" lon="-120.423760">
        <ele>400.143</ele>
        <time>2018-12-28T14:36:40Z</time>
      </trkpt>
      <trkpt lat="37.860090" lon="-120.423500">
        <ele>400.367</ele>
        <time>2018-12-28T14:37:00Z</time>
      </trkpt>
      <trkpt lat="37.859700" lon="-120.423010">
        <ele>399.093</ele>
        <time>2018-12-28T14:37:20Z</time>
      </trkpt>
      <trkpt lat="37.859230" lon="-120.422370">
        <ele>398.020</ele>
        <time>2018-12-28T14:37:40Z</time>
      </trkpt>
      <trkpt lat="37.858060" lon="-120.420810">
        <ele>394.034</ele>
        <time>2018-12-28T14:38:00Z</time>
      </trkpt>
      <trkpt lat="37.857650" lon="-120.420260">
        <ele>392.856</ele>
        <time>2018-12-28T14:38:20Z</time>
      </trkpt>
      <trkpt lat="37.857030" lon="-120.419430">
        <ele>392.059</ele>
        <time>2018-12-28T14:38:40Z</time>
      </trkpt>
      <trkpt lat="37.856160" lon="-120.418280">
        <ele>388.414</ele>
        <time>2018-12-28T14:39:00Z</time>
      </trkpt>
      <trkpt lat="37.855400" lon="-120.417250">
        <ele>384.408</ele>
        <time>2018-12-28T14:39:20Z</time>
      </trkpt>
      <trkpt lat="37.855180" lon="-120.416960">
        <ele>383.828</ele>
        <time>2018-12-28T14:39:40Z</time>
      </trkpt>
      <trkpt lat="37.854970" lon="-120.416680">
        <ele>381.786</ele>
        <time>2018-12-28T14:40:00Z</time>
      </trkpt>
      <trkpt lat="37.854380" lon="-120.415880">
        <ele>378.021</ele>
        <time>2018-12-28T14:40:20Z</time>
      </trkpt>
      <trkpt lat="37.854010" lon="-120.415390">
        <ele>376.720</ele>
        <time>2018-12-28T14:40:40Z</time>
      </trkpt>
      <trkpt lat="37.853250" lon="-120.414360">
        <ele>373.714</ele>
        <time>2018-12-28T14:41:00Z</time>
      </trkpt>
      <trkpt lat="37.852850" lon="-120.413810">
        <ele>370.590</ele>
        <time>2018-12-28T14:41:20Z</time>
      </trkpt>
      <trkpt lat="37.852580" lon="-120.413380">
        <ele>369.087</ele>
        <time>2018-12-28T14:41:40Z</time>
      </trkpt>
      <trkpt lat="37.852480" lon="-120.413210">
        <ele>368.511</ele>
        <time>2018-12-28T14:42:00Z</time>
      </trkpt>
      <trkpt lat="37.852270" lon="-120.412840">
        <ele>368.532</ele>
        <time>2018-12-28T14:42:20Z</time>
      </trkpt>
      <trkpt lat="37.852140" lon="-120.412610">
        <ele>368.192</ele>
        <time>2018-12-28T14:42:40Z</time>
      </trkpt>
      <trkpt lat="37.852010" lon="-120.412340">
        <ele>369.611</ele>
        <time>2018-12-28T14:43:00Z</time>
      </trkpt>
      <trkpt lat="37.851770" lon="-120.411780">
        <ele>367.208</ele>
        <time>2018-12-28T14:43:20Z</time>
      </trkpt>
      <trkpt lat="37.851630" lon="-120.411420">
        <ele>369.086</ele>
        <time>2018-12-28T14:43:40Z</time>
      </trkpt>
      <trkpt lat="37.851500" lon="-120.411040">
        <ele>365.584</ele>
        <time>2018-12-28T14:44:00Z</time>
      </trkpt>
      <trkpt lat="37.851390" lon="-120.410690">
        <ele>369.599</ele>
        <time>2018-12-28T14:44:20Z</time>
      </trkpt>
      <trkpt lat="37.851300" lon="-120.410390">
        <ele>365.578</ele>
        <time>2018-12-28T14:44:40Z</time>
      </trkpt>
      <trkpt lat="37.851200" lon="-120.410000">
        <ele>364.512</ele>
        <time>2018-12-28T14:45:00Z</time>
      </trkpt>
      <trkpt lat="37.851120" lon="-120.409620">
        <ele>363.138</ele>
        <time>2018-12-28T14:45:20Z</time>
      </trkpt>
      <trkpt lat="37.851060" lon="-120.409320">
        <ele>362.365</ele>
        <time>2018-12-28T14:45:40Z</time>
      </trkpt>
      <trkpt lat="37.851020" lon="-120.409030">
        <ele>362.939</ele>
        <time>2018-12-28T14:46:00Z</time>
      </trkpt>
      <trkpt lat="37.850940" lon="-120.408430">
        <ele>361.579</ele>
        <time>2018-12-28T14:46:20Z</time>
      </trkpt>
      <trkpt lat="37.850860" lon="-120.407810">
        <ele>356.905</ele>
        <time>2018-12-28T14:46:40Z</time>
      </trkpt>
      <trkpt lat="37.850810" lon="-120.407200">
        <ele>357.425</ele>
        <time>2018-12-28T14:47:00Z</time>
      </trkpt>
      <trkpt lat="37.850670" lon="-120.406060">
        <ele>360.408</ele>
        <time>2018-12-28T14:47:20Z</time>
      </trkpt>
      <trkpt lat="37.850600" lon="-120.405440">
        <ele>358.870</ele>
        <time>2018-12-28T14:47:40Z</time>
      </trkpt>
      <trkpt lat="37.850540" lon="-120.404920">
        <ele>358.388</ele>
        <time>2018-12-28T14:48:00Z</time>
      </trkpt>
      <trkpt lat="37.850490" lon="-120.404430">
        <ele>359.333</ele>
        <time>2018-12-28T14:48:20Z</time>
      </trkpt>
      <trkpt lat="37.850380" lon="-120.403500">
        <ele>359.472</ele>
        <time>2018-12-28T14:48:40Z</time>
      </trkpt>
      <trkpt lat="37.850310" lon="-120.402910">
        <ele>357.416</ele>
        <time>2018-12-28T14:49:00Z</time>
      </trkpt>
      <trkpt lat="37.850250" lon="-120.402330">
        <ele>356.882</ele>
        <time>2018-12-28T14:49:20Z</time>
      </trkpt>
      <trkpt lat="37.850200" lon="-120.401840">
        <ele>359.279</ele>
        <time>2018-12-28T14:49:40Z</time>
      </trkpt>
      <trkpt lat="37.850160" lon="-120.401070">
        <ele>358.993</ele>
        <time>2018-12-28T14:50:00Z</time>
      </trkpt>
      <trkpt lat="37.850140" lon="-120.400650">
        <ele>359.093</ele>
        <time>2018-12-28T14:50:20Z</time>
      </trkpt>
      <trkpt lat="37.850130" lon="-120.399970">
        <ele>358.765</ele>
        <time>2018-12-28T14:50:40Z</time>
      </trkpt>
      <trkpt lat="37.850160" lon="-120.399070">
        <ele>357.821</ele>
        <time>2018-12-28T14:51:00Z</time>
      </trkpt>
      <trkpt lat="37.850200" lon="-120.398420">
        <ele>357.308</ele>
        <time>2018-12-28T14:51:20Z</time>
      </trkpt>
      <trkpt lat="37.850270" lon="-120.397650">
        <ele>352.792</ele>
        <time>2018-12-28T14:51:40Z</time>
      </trkpt>
      <trkpt lat="37.850320" lon="-120.397120">
        <ele>353.990</ele>
        <time>2018-12-28T14:52:00Z</time>
      </trkpt>
      <trkpt lat="37.850370" lon="-120.396640">
        <ele>355.525</ele>
        <time>2018-12-28T14:52:20Z</time>
      </trkpt>
      <trkpt lat="37.850410" lon="-120.396240">
        <ele>355.634</ele>
        <time>2018-12-28T14:52:40Z</time>
      </trkpt>
      <trkpt lat="37.850450" lon="-120.395770">
        <ele>354.288</ele>
        <time>2018-12-28T14:53:00Z</time>
      </trkpt>
      <trkpt lat="37.850490" lon="-120.395370">
        <ele>353.994</ele>
        <time>2018-12-28T14:53:20Z</time>
      </trkpt>
      <trkpt lat="37.850520" lon="-120.395030">
        <ele>355.481</ele>
        <time>2018-12-28T14:53:40Z</time>
      </trkpt>
      <trkpt lat="37.850530" lon="-120.394770">
        <ele>353.155</ele>
        <time>2018-12-28T14:54:00Z</time>
      </trkpt>
      <trkpt lat="37.850520" lon="-120.394530">
        <ele>349.541</ele>
        <time>2018-12-28T14:54:20Z</time>
      </trkpt>
      <trkpt lat="37.850510" lon="-120.394270">
        <ele>351.281</ele>
        <time>2018-12-28T14:54:40Z</time>
      </trkpt>
      <trkpt lat="37.850480" lon="-120.393990">
        <ele>349.809</ele>
        <time>2018-12-28T14:55:00Z</time>
      </trkpt>
      <trkpt lat="37.850440" lon="-120.393770">
        <ele>348.808</ele>
        <time>2018-12-28T14:55:20Z</time>
      </trkpt>
      <trkpt lat="37.850380" lon="-120.393490">
        <ele>349.397</ele>
        <time>2018-12-28T14:55:40Z</time>
      </trkpt>
      <trkpt lat="37.850310" lon="-120.393190">
        <ele>350.455</ele>
        <time>2018-12-28T14:56:00Z</time>
      </trkpt>
      <trkpt lat="37.850220" lon="-120.392910">
        <ele>347.540</ele>
        <time>2018-12-28T14:56:20Z</time>
      </trkpt>
      <trkpt lat="37.850090" lon="-120.392540">
        <ele>346.299</ele>
        <time>2018-12-28T14:56:40Z</time>
      </trkpt>
      <trkpt lat="37.849730" lon="-120.391480">
        <ele>338.133</ele>
        <time>2018-12-28T14:57:00Z</time>
      </trkpt>
      <trkpt lat="37.849530" lon="-120.390890">
        <ele>334.949</ele>
        <time>2018-12-28T14:57:20Z</time>
      </trkpt>
      <trkpt lat="37.849400" lon="-120.390500">
        <ele>331.696</ele>
        <time>2018-12-28T14:57:40Z</time>
      </trkpt>
      <trkpt lat="37.849220" lon="-120.389990">
        <ele>334.670</ele>
        <time>2018-12-28T14:58:00Z</time>
      </trkpt>
      <trkpt lat="37.849130" lon="-120.389720">
        <ele>333.096</ele>
        <time>2018-12-28T14:58:20Z</time>
      </trkpt>
      <trkpt lat="37.849070" lon="-120.389580">
        <ele>329.031</ele>
        <time>2018-12-28T14:58:40Z</time>
      </trkpt>
      <trkpt lat="37.849030" lon="-120.389460">
        <ele>327.024</ele>
        <time>2018-12-28T14:59:00Z</time>
      </trkpt>
      <trkpt lat="37.848950" lon="-120.389280">
        <ele>328.808</ele>
        <time>2018-12-28T14:59:20Z</time>
      </trkpt>
      <trkpt lat="37.848870" lon="-120.389100">
        <ele>328.982</ele>
        <time>2018-12-28T14:59:40Z</time>
      </trkpt>
      <trkpt lat="37.848740" lon="-120.388850">
        <ele>323.480</ele>
        <time>2018-12-28T15:00:00Z</time>
      </trkpt>
      <trkpt lat="37.848620" lon="-120.388650">
        <ele>323.835</ele>
        <time>2018-12-28T15:00:20Z</time>
      </trkpt>
      <trkpt lat="37.848520" lon="-120.388480">
        <ele>321.594</ele>
        <time>2018-12-28T15:00:40Z</time>
      </trkpt>
      <trkpt lat="37.848430" lon="-120.388350">
        <ele>320.848</ele>
        <time>2018-12-28T15:01:00Z</time>
      </trkpt>
      <trkpt lat="37.848170" lon="-120.387970">
        <ele>318.244</ele>
        <time>2018-12-28T15:01:20Z</time>
      </trkpt>
      <trkpt lat="37.847840" lon="-120.387520">
        <ele>314.611</ele>
        <time>2018-12-28T15:01:40Z</time>
      </trkpt>
      <trkpt lat="37.847620" lon="-120.387230">
        <ele>312.435</ele>
        <time>2018-12-28T15:02:00Z</time>
      </trkpt>
      <trkpt lat="37.846680" lon="-120.385950">
        <ele>304.177</ele>
        <time>2018-12-28T15:02:20Z</time>
      </trkpt>
      <trkpt lat="37.846480" lon="-120.385680">
        <ele>301.361</ele>
        <time>2018-12-28T15:02:40Z</time>
      </trkpt>
      <trkpt lat="37.846030" lon="-120.385070">
        <ele>295.327</ele>
        <time>2018-12-28T15:03:00Z</time>
      </trkpt>
      <trkpt lat="37.845600" lon="-120.384460">
        <ele>290.508</ele>
        <time>2018-12-28T15:03:20Z</time>
      </trkpt>
      <trkpt lat="37.845240" lon="-120.383950">
        <ele>290.370</ele>
        <time>2018-12-28T15:03:40Z</time>
      </trkpt>
      <trkpt lat="37.844640" lon="-120.383060">
        <ele>284.578</ele>
        <time>2018-12-28T15:04:00Z</time>
      </trkpt>
      <trkpt lat="37.844560" lon="-120.382940">
        <ele>283.133</ele>
        <time>2018-12-28T15:04:20Z</time>
      </trkpt>
      <trkpt lat="37.844300" lon="-120.382530">
        <ele>280.642</ele>
        <time>2018-12-28T15:04:40Z</time>
      </trkpt>
      <trkpt lat="37.843890" lon="-120.381920">
        <ele>278.396</ele>
        <time>2018-12-28T15:05:00Z</time>
      </trkpt>
      <trkpt lat="37.843650" lon="-120.381590">
        <ele>276.112</ele>
        <time>2018-12-28T15:05:20Z</time>
      </trkpt>
      <trkpt lat="37.843480" lon="-120.381370">
        <ele>274.829</ele>
        <time>2018-12-28T15:05:40Z</time>
      </trkpt>
      <trkpt lat="37.843430" lon="-120.381320">
        <ele>275.143</ele>
        <time>2018-12-28T15:06:00Z</time>
      </trkpt>
      <trkpt lat="37.843320" lon="-120.381220">
        <ele>274.482</ele>
        <time>2018-12-28T15:06:20Z</time>
      </trkpt>
      <trkpt lat="37.843230" lon="-120.381130">
        <ele>273.943</ele>
        <time>2018-12-28T15:06:40Z</time>
      </trkpt>
      <trkpt lat="37.843160" lon="-120.381070">
        <ele>274.017</ele>
        <time>2018-12-28T15:07:00Z</time>
      </trkpt>
      <trkpt lat="37.843080" lon="-120.381000">
        <ele>273.408</ele>
        <time>2018-12-28T15:07:20Z</time>
      </trkpt>
      <trkpt lat="37.843000" lon="-120.380940">
        <ele>273.041</ele>
        <time>2018-12-28T15:07:40Z</time>
      </trkpt>
      <trkpt lat="37.842910" lon="-120.380880">
        <ele>273.919</ele>
        <time>2018-12-28T15:08:00Z</time>
      </trkpt>
      <trkpt lat="37.842810" lon="-120.380810">
        <ele>275.154</ele>
        <time>2018-12-28T15:08:20Z</time>
      </trkpt>
      <trkpt lat="37.842700" lon="-120.380750">
        <ele>273.953</ele>
        <time>2018-12-28T15:08:40Z</time>
      </trkpt>
      <trkpt lat="37.842470" lon="-120.380630">
        <ele>272.137</ele>
        <time>2018-12-28T15:09:00Z</time>
      </trkpt>
      <trkpt lat="37.842150" lon="-120.380500">
        <ele>272.863</ele>
        <time>2018-12-28T15:09:20Z</time>
      </trkpt>
      <trkpt lat="37.841890" lon="-120.380400">
        <ele>270.160</ele>
        <time>2018-12-28T15:09:40Z</time>
      </trkpt>
      <trkpt lat="37.841410" lon="-120.380210">
        <ele>271.794</ele>
        <time>2018-12-28T15:10:00Z</time>
      </trkpt>
      <trkpt lat="37.841130" lon="-120.380100">
        <ele>266.471</ele>
        <time>2018-12-28T15:10:20Z</time>
      </trkpt>
      <trkpt lat="37.840980" lon="-120.380020">
        <ele>260.941</ele>
        <time>2018-12-28T15:10:40Z</time>
      </trkpt>
      <trkpt lat="37.840840" lon="-120.379950">
        <ele>256.715</ele>
        <time>2018-12-28T15:11:00Z</time>
      </trkpt>
      <trkpt lat="37.840720" lon="-120.379880">
        <ele>249.908</ele>
        <time>2018-12-28T15:11:20Z</time>
      </trkpt>
      <trkpt lat="37.840470" lon="-120.379700">
        <ele>244.770</ele>
        <time>2018-12-28T15:11:40Z</time>
      </trkpt>
      <trkpt lat="37.840170" lon="-120.379420">
        <ele>241.138</ele>
        <time>2018-12-28T15:12:00Z</time>
      </trkpt>
      <trkpt lat="37.840110" lon="-120.379350">
        <ele>241.153</ele>
        <time>2018-12-28T15:12:20Z</time>
      </trkpt>
      <trkpt lat="37.840030" lon="-120.379260">
        <ele>241.122</ele>
        <time>2018-12-28T15:12:40Z</time>
      </trkpt>
      <trkpt lat="37.839930" lon="-120.379130">
        <ele>241.166</ele>
        <time>2018-12-28T15:13:00Z</time>
      </trkpt>
      <trkpt lat="37.839820" lon="-120.378990">
        <ele>241.172</ele>
        <time>2018-12-28T15:13:20Z</time>
      </trkpt>
      <trkpt lat="37.839740" lon="-120.378870">
        <ele>241.199</ele>
        <time>2018-12-28T15:13:40Z</time>
      </trkpt>
      <trkpt lat="37.839660" lon="-120.378730">
        <ele>241.183</ele>
        <time>2018-12-28T15:14:00Z</time>
      </trkpt>
      <trkpt lat="37.839590" lon="-120.378620">
        <ele>241.136</ele>
        <time>2018-12-28T15:14:20Z</time>
      </trkpt>
      <trkpt lat="37.839510" lon="-120.378470">
        <ele>241.117</ele>
        <time>2018-12-28T15:14:40Z</time>
      </trkpt>
      <trkpt lat="37.839440" lon="-120.378320">
        <ele>241.118</ele>
        <time>2018-12-28T15:15:00Z</time>
      </trkpt>
      <trkpt lat="37.839290" lon="-120.377980">
        <ele>241.108</ele>
        <time>2018-12-28T15:15:20Z</time>
      </trkpt>
      <trkpt lat="37.839230" lon="-120.377810">
        <ele>241.156</ele>
        <time>2018-12-28T15:15:40Z</time>
      </trkpt>
      <trkpt lat="37.839190" lon="-120.377680">
        <ele>241.154</ele>
        <time>2018-12-28T15:16:00Z</time>
      </trkpt>
      <trkpt lat="37.839140" lon="-120.377530">
        <ele>241.129</ele>
        <time>2018-12-28T15:16:20Z</time>
      </trkpt>
      <trkpt lat="37.839120" lon="-120.377400">
        <ele>241.188</ele>
        <time>2018-12-28T15:16:40Z</time>
      </trkpt>
      <trkpt lat="37.839080" lon="-120.377210">
        <ele>241.152</ele>
        <time>2018-12-28T15:17:00Z</time>
      </trkpt>
      <trkpt lat="37.839040" lon="-120.376980">
        <ele>242.358</ele>
        <time>2018-12-28T15:17:20Z</time>
      </trkpt>
      <trkpt lat="37.839010" lon="-120.376790">
        <ele>245.535</ele>
        <time>2018-12-28T15:17:40Z</time>
      </trkpt>
      <trkpt lat="37.839010" lon="-120.376680">
        <ele>252.099</ele>
        <time>2018-12-28T15:18:00Z</time>
      </trkpt>
      <trkpt lat="37.839000" lon="-120.376600">
        <ele>256.845</ele>
        <time>2018-12-28T15:18:20Z</time>
      </trkpt>
      <trkpt lat="37.839000" lon="-120.376490">
        <ele>262.247</ele>
        <time>2018-12-28T15:18:40Z</time>
      </trkpt>
      <trkpt lat="37.838990" lon="-120.376360">
        <ele>266.411</ele>
        <time>2018-12-28T15:19:00Z</time>
      </trkpt>
      <trkpt lat="37.838990" lon="-120.376220">
        <ele>270.108</ele>
        <time>2018-12-28T15:19:20Z</time>
      </trkpt>
      <trkpt lat="37.838990" lon="-120.376080">
        <ele>271.357</ele>
        <time>2018-12-28T15:19:40Z</time>
      </trkpt>
      <trkpt lat="37.838990" lon="-120.375940">
        <ele>272.245</ele>
        <time>2018-12-28T15:20:00Z</time>
      </trkpt>
      <trkpt lat="37.839010" lon="-120.375740">
        <ele>271.840</ele>
        <time>2018-12-28T15:20:20Z</time>
      </trkpt>
      <trkpt lat="37.839030" lon="-120.375520">
        <ele>271.619</ele>
        <time>2018-12-28T15:20:40Z</time>
      </trkpt>
      <trkpt lat="37.839070" lon="-120.375310">
        <ele>272.333</ele>
        <time>2018-12-28T15:21:00Z</time>
      </trkpt>
      <trkpt lat="37.839110" lon="-120.375140">
        <ele>274.029</ele>
        <time>2018-12-28T15:21:20Z</time>
      </trkpt>
      <trkpt lat="37.839140" lon="-120.375000">
        <ele>275.996</ele>
        <time>2018-12-28T15:21:40Z</time>
      </trkpt>
      <trkpt lat="37.839250" lon="-120.374610">
        <ele>275.860</ele>
        <time>2018-12-28T15:22:00Z</time>
      </trkpt>
      <trkpt lat="37.839550" lon="-120.373610">
        <ele>277.449</ele>
        <time>2018-12-28T15:22:20Z</time>
      </trkpt>
      <trkpt lat="37.839680" lon="-120.373190">
        <ele>281.802</ele>
        <time>2018-12-28T15:22:40Z</time>
      </trkpt>
      <trkpt lat="37.839770" lon="-120.372860">
        <ele>283.722</ele>
        <time>2018-12-28T15:23:00Z</time>
      </trkpt>
      <trkpt lat="37.839830" lon="-120.372620">
        <ele>282.008</ele>
        <time>2018-12-28T15:23:20Z</time>
      </trkpt>
      <trkpt lat="37.839880" lon="-120.372340">
        <ele>281.047</ele>
        <time>2018-12-28T15:23:40Z</time>
      </trkpt>
      <trkpt lat="37.839930" lon="-120.372080">
        <ele>281.775</ele>
        <time>2018-12-28T15:24:00Z</time>
      </trkpt>
      <trkpt lat="37.839970" lon="-120.371800">
        <ele>282.610</ele>
        <time>2018-12-28T15:24:20Z</time>
      </trkpt>
      <trkpt lat="37.839990" lon="-120.371600">
        <ele>283.369</ele>
        <time>2018-12-28T15:24:40Z</time>
      </trkpt>
      <trkpt lat="37.840010" lon="-120.371400">
        <ele>284.893</ele>
        <time>2018-12-28T15:25:00Z</time>
      </trkpt>
      <trkpt lat="37.840020" lon="-120.371090">
        <ele>287.589</ele>
        <time>2018-12-28T15:25:20Z</time>
      </trkpt>
      <trkpt lat="37.840030" lon="-120.370820">
        <ele>289.116</ele>
        <time>2018-12-28T15:25:40Z</time>
      </trkpt>
      <trkpt lat="37.840030" lon="-120.370560">
        <ele>289.550</ele>
        <time>2018-12-28T15:26:00Z</time>
      </trkpt>
      <trkpt lat="37.840020" lon="-120.370300">
        <ele>289.417</ele>
        <time>2018-12-28T15:26:20Z</time>
      </trkpt>
      <trkpt lat="37.839990" lon="-120.369980">
        <ele>288.287</ele>
        <time>2018-12-28T15:26:40Z</time>
      </trkpt>
      <trkpt lat="37.839960" lon="-120.369640">
        <ele>286.415</ele>
        <time>2018-12-28T15:27:00Z</time>
      </trkpt>
      <trkpt lat="37.839930" lon="-120.369430">
        <ele>286.808</ele>
        <time>2018-12-28T15:27:20Z</time>
      </trkpt>
      <trkpt lat="37.839890" lon="-120.369220">
        <ele>288.634</ele>
        <time>2018-12-28T15:27:40Z</time>
      </trkpt>
      <trkpt lat="37.839850" lon="-120.369030">
        <ele>290.622</ele>
        <time>2018-12-28T15:28:00Z</time>
      </trkpt>
      <trkpt lat="37.839790" lon="-120.368770">
        <ele>291.567</ele>
        <time>2018-12-28T15:28:20Z</time>
      </trkpt>
      <trkpt lat="37.839730" lon="-120.368530">
        <ele>290.756</ele>
        <time>2018-12-28T15:28:40Z</time>
      </trkpt>
      <trkpt lat="37.839660" lon="-120.368290">
        <ele>289.810</ele>
        <time>2018-12-28T15:29:00Z</time>
      </trkpt>
      <trkpt lat="37.839600" lon="-120.368100">
        <ele>291.146</ele>
        <time>2018-12-28T15:29:20Z</time>
      </trkpt>
      <trkpt lat="37.839540" lon="-120.367940">
        <ele>291.863</ele>
        <time>2018-12-28T15:29:40Z</time>
      </trkpt>
      <trkpt lat="37.839440" lon="-120.367650">
        <ele>289.447</ele>
        <time>2018-12-28T15:30:00Z</time>
      </trkpt>
      <trkpt lat="37.839320" lon="-120.367380">
        <ele>292.089</ele>
        <time>2018-12-28T15:30:20Z</time>
      </trkpt>
      <trkpt lat="37.839260" lon="-120.367250">
        <ele>292.006</ele>
        <time>2018-12-28T15:30:40Z</time>
      </trkpt>
      <trkpt lat="37.839180" lon="-120.367090">
        <ele>290.126</ele>
        <time>2018-12-28T15:31:00Z</time>
      </trkpt>
      <trkpt lat="37.838990" lon="-120.366700">
        <ele>292.108</ele>
        <time>2018-12-28T15:31:20Z</time>
      </trkpt>
      <trkpt lat="37.838740" lon="-120.366190">
        <ele>293.791</ele>
        <time>2018-12-28T15:31:40Z</time>
      </trkpt>
      <trkpt lat="37.838530" lon="-120.365750">
        <ele>293.429</ele>
        <time>2018-12-28T15:32:00Z</time>
      </trkpt>
      <trkpt lat="37.838330" lon="-120.365350">
        <ele>294.194</ele>
        <time>2018-12-28T15:32:20Z</time>
      </trkpt>
      <trkpt lat="37.838170" lon="-120.365000">
        <ele>294.843</ele>
        <time>2018-12-28T15:32:40Z</time>
      </trkpt>
      <trkpt lat="37.838040" lon="-120.364730">
        <ele>296.677</ele>
        <time>2018-12-28T15:33:00Z</time>
      </trkpt>
      <trkpt lat="37.837770" lon="-120.364190">
        <ele>295.393</ele>
        <time>2018-12-28T15:33:20Z</time>
      </trkpt>
      <trkpt lat="37.837650" lon="-120.363920">
        <ele>294.270</ele>
        <time>2018-12-28T15:33:40Z</time>
      </trkpt>
      <trkpt lat="37.837510" lon="-120.363640">
        <ele>295.454</ele>
        <time>2018-12-28T15:34:00Z</time>
      </trkpt>
      <trkpt lat="37.837340" lon="-120.363320">
        <ele>296.093</ele>
        <time>2018-12-28T15:34:20Z</time>
      </trkpt>
      <trkpt lat="37.837310" lon="-120.363260">
        <ele>296.865</ele>
        <time>2018-12-28T15:34:40Z</time>
      </trkpt>
      <trkpt lat="37.837180" lon="-120.363030">
        <ele>295.521</ele>
        <time>2018-12-28T15:35:00Z</time>
      </trkpt>
      <trkpt lat="37.837050" lon="-120.362810">
        <ele>295.108</ele>
        <time>2018-12-28T15:35:20Z</time>
      </trkpt>
      <trkpt lat="37.836950" lon="-120.362660">
        <ele>294.032</ele>
        <time>2018-12-28T15:35:40Z</time>
      </trkpt>
      <trkpt lat="37.836840" lon="-120.362500">
        <ele>294.410</ele>
        <time>2018-12-28T15:36:00Z</time>
      </trkpt>
      <trkpt lat="37.836750" lon="-120.362370">
        <ele>297.065</ele>
        <time>2018-12-28T15:36:20Z</time>
      </trkpt>
      <trkpt lat="37.836650" lon="-120.362230">
        <ele>295.674</ele>
        <time>2018-12-28T15:36:40Z</time>
      </trkpt>
      <trkpt lat="37.836560" lon="-120.362110">
        <ele>295.568</ele>
        <time>2018-12-28T15:37:00Z</time>
      </trkpt>
      <trkpt lat="37.836280" lon="-120.361780">
        <ele>295.084</ele>
        <time>2018-12-28T15:37:20Z</time>
      </trkpt>
      <trkpt lat="37.835980" lon="-120.361470">
        <ele>296.011</ele>
        <time>2018-12-28T15:37:40Z</time>
      </trkpt>
      <trkpt lat="37.835690" lon="-120.361170">
        <ele>295.755</ele>
        <time>2018-12-28T15:38:00Z</time>
      </trkpt>
      <trkpt lat="37.835320" lon="-120.360780">
        <ele>297.213</ele>
        <time>2018-12-28T15:38:20Z</time>
      </trkpt>
      <trkpt lat="37.835100" lon="-120.360540">
        <ele>296.743</ele>
        <time>2018-12-28T15:38:40Z</time>
      </trkpt>
      <trkpt lat="37.834910" lon="-120.360340">
        <ele>296.207</ele>
        <time>2018-12-28T15:39:00Z</time>
      </trkpt>
      <trkpt lat="37.834720" lon="-120.360100">
        <ele>295.408</ele>
        <time>2018-12-28T15:39:20Z</time>
      </trkpt>
      <trkpt lat="37.834590" lon="-120.359950">
        <ele>296.824</ele>
        <time>2018-12-28T15:39:40Z</time>
      </trkpt>
      <trkpt lat="37.834400" lon="-120.359690">
        <ele>295.282</ele>
        <time>2018-12-28T15:40:00Z</time>
      </trkpt>
      <trkpt lat="37.834200" lon="-120.359390">
        <ele>296.417</ele>
        <time>2018-12-28T15:40:20Z</time>
      </trkpt>
      <trkpt lat="37.834060" lon="-120.359160">
        <ele>297.086</ele>
        <time>2018-12-28T15:40:40Z</time>
      </trkpt>
      <trkpt lat="37.833920" lon="-120.358910">
        <ele>297.730</ele>
        <time>2018-12-28T15:41:00Z</time>
      </trkpt>
      <trkpt lat="37.833840" lon="-120.358740">
        <ele>296.146</ele>
        <time>2018-12-28T15:41:20Z</time>
      </trkpt>
      <trkpt lat="37.833660" lon="-120.358350">
        <ele>300.743</ele>
        <time>2018-12-28T15:41:40Z</time>
      </trkpt>
      <trkpt lat="37.833530" lon="-120.358080">
        <ele>299.657</ele>
        <time>2018-12-28T15:42:00Z</time>
      </trkpt>
      <trkpt lat="37.833420" lon="-120.357820">
        <ele>300.614</ele>
        <time>2018-12-28T15:42:20Z</time>
      </trkpt>
      <trkpt lat="37.833290" lon="-120.357530">
        <ele>298.754</ele>
        <time>2018-12-28T15:42:40Z</time>
      </trkpt>
      <trkpt lat="37.833160" lon="-120.357230">
        <ele>298.109</ele>
        <time>2018-12-28T15:43:00Z</time>
      </trkpt>
      <trkpt lat="37.832860" lon="-120.356610">
        <ele>302.508</ele>
        <time>2018-12-28T15:43:20Z</time>
      </trkpt>
      <trkpt lat="37.832640" lon="-120.356130">
        <ele>299.994</ele>
        <time>2018-12-28T15:43:40Z</time>
      </trkpt>
      <trkpt lat="37.832210" lon="-120.355160">
        <ele>296.692</ele>
        <time>2018-12-28T15:44:00Z</time>
      </trkpt>
      <trkpt lat="37.832050" lon="-120.354780">
        <ele>299.277</ele>
        <time>2018-12-28T15:44:20Z</time>
      </trkpt>
      <trkpt lat="37.831950" lon="-120.354540">
        <ele>296.986</ele>
        <time>2018-12-28T15:44:40Z</time>
      </trkpt>
      <trkpt lat="37.831840" lon="-120.354270">
        <ele>300.020</ele>
        <time>2018-12-28T15:45:00Z</time>
      </trkpt>
      <trkpt lat="37.831730" lon="-120.353910">
        <ele>302.276</ele>
        <time>2018-12-28T15:45:20Z</time>
      </trkpt>
      <trkpt lat="37.831650" lon="-120.353610">
        <ele>303.563</ele>
        <time>2018-12-28T15:45:40Z</time>
      </trkpt>
      <trkpt lat="37.831600" lon="-120.353430">
        <ele>303.037</ele>
        <time>2018-12-28T15:46:00Z</time>
      </trkpt>
      <trkpt lat="37.831540" lon="-120.353130">
        <ele>302.783</ele>
        <time>2018-12-28T15:46:20Z</time>
      </trkpt>
      <trkpt lat="37.831500" lon="-120.352870">
        <ele>304.025</ele>
        <time>2018-12-28T15:46:40Z</time>
      </trkpt>
      <trkpt lat="37.831460" lon="-120.352630">
        <ele>306.017</ele>
        <time>2018-12-28T15:47:00Z</time>
      </trkpt>
      <trkpt lat="37.831290" lon="-120.350920">
        <ele>302.108</ele>
        <time>2018-12-28T15:47:20Z</time>
      </trkpt>
      <trkpt lat="37.831250" lon="-120.350350">
        <ele>303.821</ele>
        <time>2018-12-28T15:47:40Z</time>
      </trkpt>
      <trkpt lat="37.831210" lon="-120.350050">
        <ele>304.179</ele>
        <time>2018-12-28T15:48:00Z</time>
      </trkpt>
      <trkpt lat="37.831170" lon="-120.349810">
        <ele>304.264</ele>
        <time>2018-12-28T15:48:20Z</time>
      </trkpt>
      <trkpt lat="37.831130" lon="-120.349580">
        <ele>301.313</ele>
        <time>2018-12-28T15:48:40Z</time>
      </trkpt>
      <trkpt lat="37.831080" lon="-120.349370">
        <ele>301.567</ele>
        <time>2018-12-28T15:49:00Z</time>
      </trkpt>
      <trkpt lat="37.831060" lon="-120.349270">
        <ele>302.033</ele>
        <time>2018-12-28T15:49:20Z</time>
      </trkpt>
      <trkpt lat="37.830940" lon="-120.348810">
        <ele>306.190</ele>
        <time>2018-12-28T15:49:40Z</time>
      </trkpt>
      <trkpt lat="37.830850" lon="-120.348540">
        <ele>307.474</ele>
        <time>2018-12-28T15:50:00Z</time>
      </trkpt>
      <trkpt lat="37.830800" lon="-120.348390">
        <ele>307.179</ele>
        <time>2018-12-28T15:50:20Z</time>
      </trkpt>
      <trkpt lat="37.830720" lon="-120.348190">
        <ele>305.505</ele>
        <time>2018-12-28T15:50:40Z</time>
      </trkpt>
      <trkpt lat="37.830670" lon="-120.348060">
        <ele>306.725</ele>
        <time>2018-12-28T15:51:00Z</time>
      </trkpt>
      <trkpt lat="37.830630" lon="-120.347950">
        <ele>308.008</ele>
        <time>2018-12-28T15:51:20Z</time>
      </trkpt>
      <trkpt lat="37.830590" lon="-120.347860">
        <ele>308.560</ele>
        <time>2018-12-28T15:51:40Z</time>
      </trkpt>
      <trkpt lat="37.830510" lon="-120.347700">
        <ele>307.348</ele>
        <time>2018-12-28T15:52:00Z</time>
      </trkpt>
      <trkpt lat="37.830420" lon="-120.347510">
        <ele>306.123</ele>
        <time>2018-12-28T15:52:20Z</time>
      </trkpt>
      <trkpt lat="37.830100" lon="-120.346910">
        <ele>307.262</ele>
        <time>2018-12-28T15:52:40Z</time>
      </trkpt>
      <trkpt lat="37.829270" lon="-120.345340">
        <ele>307.446</ele>
        <time>2018-12-28T15:53:00Z</time>
      </trkpt>
      <trkpt lat="37.828420" lon="-120.343590">
        <ele>308.282</ele>
        <time>2018-12-28T15:53:20Z</time>
      </trkpt>
      <trkpt lat="37.828180" lon="-120.343080">
        <ele>307.179</ele>
        <time>2018-12-28T15:53:40Z</time>
      </trkpt>
      <trkpt lat="37.827400" lon="-120.341380">
        <ele>307.673</ele>
        <time>2018-12-28T15:54:00Z</time>
      </trkpt>
      <trkpt lat="37.824360" lon="-120.334740">
        <ele>303.143</ele>
        <time>2018-12-28T15:54:20Z</time>
      </trkpt>
      <trkpt lat="37.815920" lon="-120.316330">
        <ele>286.964</ele>
        <time>2018-12-28T15:54:40Z</time>
      </trkpt>
      <trkpt lat="37.815790" lon="-120.316060">
        <ele>286.010</ele>
        <time>2018-12-28T15:55:00Z</time>
      </trkpt>
      <trkpt lat="37.815660" lon="-120.315770">
        <ele>285.008</ele>
        <time>2018-12-28T15:55:20Z</time>
      </trkpt>
      <trkpt lat="37.815510" lon="-120.315400">
        <ele>283.187</ele>
        <time>2018-12-28T15:55:40Z</time>
      </trkpt>
      <trkpt lat="37.815410" lon="-120.315120">
        <ele>282.975</ele>
        <time>2018-12-28T15:56:00Z</time>
      </trkpt>
      <trkpt lat="37.815320" lon="-120.314850">
        <ele>283.460</ele>
        <time>2018-12-28T15:56:20Z</time>
      </trkpt>
      <trkpt lat="37.815220" lon="-120.314520">
        <ele>281.299</ele>
        <time>2018-12-28T15:56:40Z</time>
      </trkpt>
      <trkpt lat="37.815140" lon="-120.314220">
        <ele>280.853</ele>
        <time>2018-12-28T15:57:00Z</time>
      </trkpt>
      <trkpt lat="37.815070" lon="-120.313960">
        <ele>281.139</ele>
        <time>2018-12-28T15:57:20Z</time>
      </trkpt>
      <trkpt lat="37.815020" lon="-120.313700">
        <ele>280.386</ele>
        <time>2018-12-28T15:57:40Z</time>
      </trkpt>
      <trkpt lat="37.814970" lon="-120.313460">
        <ele>279.140</ele>
        <time>2018-12-28T15:58:00Z</time>
      </trkpt>
      <trkpt lat="37.814930" lon="-120.313190">
        <ele>278.514</ele>
        <time>2018-12-28T15:58:20Z</time>
      </trkpt>
      <trkpt lat="37.814890" lon="-120.312850">
        <ele>278.354</ele>
        <time>2018-12-28T15:58:40Z</time>
      </trkpt>
      <trkpt lat="37.814860" lon="-120.312560">
        <ele>278.309</ele>
        <time>2018-12-28T15:59:00Z</time>
      </trkpt>
      <trkpt lat="37.814830" lon="-120.312240">
        <ele>277.708</ele>
        <time>2018-12-28T15:59:20Z</time>
      </trkpt>
      <trkpt lat="37.814800" lon="-120.311750">
        <ele>277.294</ele>
        <time>2018-12-28T15:59:40Z</time>
      </trkpt>
      <trkpt lat="37.814760" lon="-120.311210">
        <ele>273.262</ele>
        <time>2018-12-28T16:00:00Z</time>
      </trkpt>
      <trkpt lat="37.814740" lon="-120.310860">
        <ele>271.337</ele>
        <time>2018-12-28T16:00:20Z</time>
      </trkpt>
      <trkpt lat="37.814710" lon="-120.310600">
        <ele>271.096</ele>
        <time>2018-12-28T16:00:40Z</time>
      </trkpt>
      <trkpt lat="37.814690" lon="-120.310380">
        <ele>271.690</ele>
        <time>2018-12-28T16:01:00Z</time>
      </trkpt>
      <trkpt lat="37.814660" lon="-120.310150">
        <ele>273.266</ele>
        <time>2018-12-28T16:01:20Z</time>
      </trkpt>
      <trkpt lat="37.814630" lon="-120.309910">
        <ele>274.123</ele>
        <time>2018-12-28T16:01:40Z</time>
      </trkpt>
      <trkpt lat="37.814600" lon="-120.309730">
        <ele>275.427</ele>
        <time>2018-12-28T16:02:00Z</time>
      </trkpt>
      <trkpt lat="37.814570" lon="-120.309510">
        <ele>275.867</ele>
        <time>2018-12-28T16:02:20Z</time>
      </trkpt>
      <trkpt lat="37.814530" lon="-120.309270">
        <ele>274.481</ele>
        <time>2018-12-28T16:02:40Z</time>
      </trkpt>
      <trkpt lat="37.814460" lon="-120.308930">
        <ele>272.419</ele>
        <time>2018-12-28T16:03:00Z</time>
      </trkpt>
      <trkpt lat="37.814210" lon="-120.307780">
        <ele>263.008</ele>
        <time>2018-12-28T16:03:20Z</time>
      </trkpt>
      <trkpt lat="37.814040" lon="-120.306990">
        <ele>278.999</ele>
        <time>2018-12-28T16:03:40Z</time>
      </trkpt>
      <trkpt lat="37.813920" lon="-120.306470">
        <ele>281.487</ele>
        <time>2018-12-28T16:04:00Z</time>
      </trkpt>
      <trkpt lat="37.813830" lon="-120.306050">
        <ele>284.512</ele>
        <time>2018-12-28T16:04:20Z</time>
      </trkpt>
      <trkpt lat="37.813780" lon="-120.305770">
        <ele>286.691</ele>
        <time>2018-12-28T16:04:40Z</time>
      </trkpt>
      <trkpt lat="37.813750" lon="-120.305560">
        <ele>286.815</ele>
        <time>2018-12-28T16:05:00Z</time>
      </trkpt>
      <trkpt lat="37.813710" lon="-120.305330">
        <ele>287.771</ele>
        <time>2018-12-28T16:05:20Z</time>
      </trkpt>
      <trkpt lat="37.813680" lon="-120.304970">
        <ele>289.068</ele>
        <time>2018-12-28T16:05:40Z</time>
      </trkpt>
      <trkpt lat="37.813660" lon="-120.304670">
        <ele>290.632</ele>
        <time>2018-12-28T16:06:00Z</time>
      </trkpt>
      <trkpt lat="37.813650" lon="-120.304460">
        <ele>291.764</ele>
        <time>2018-12-28T16:06:20Z</time>
      </trkpt>
      <trkpt lat="37.813650" lon="-120.304260">
        <ele>292.506</ele>
        <time>2018-12-28T16:06:40Z</time>
      </trkpt>
      <trkpt lat="37.813650" lon="-120.304040">
        <ele>293.416</ele>
        <time>2018-12-28T16:07:00Z</time>
      </trkpt>
      <trkpt lat="37.813660" lon="-120.303820">
        <ele>294.608</ele>
        <time>2018-12-28T16:07:20Z</time>
      </trkpt>
      <trkpt lat="37.813680" lon="-120.303530">
        <ele>296.389</ele>
        <time>2018-12-28T16:07:40Z</time>
      </trkpt>
      <trkpt lat="37.813750" lon="-120.302620">
        <ele>301.667</ele>
        <time>2018-12-28T16:08:00Z</time>
      </trkpt>
      <trkpt lat="37.813800" lon="-120.301950">
        <ele>304.952</ele>
        <time>2018-12-28T16:08:20Z</time>
      </trkpt>
      <trkpt lat="37.813880" lon="-120.300940">
        <ele>305.331</ele>
        <time>2018-12-28T16:08:40Z</time>
      </trkpt>
      <trkpt lat="37.813910" lon="-120.300640">
        <ele>306.435</ele>
        <time>2018-12-28T16:09:00Z</time>
      </trkpt>
      <trkpt lat="37.813940" lon="-120.300370">
        <ele>311.861</ele>
        <time>2018-12-28T16:09:20Z</time>
      </trkpt>
      <trkpt lat="37.813980" lon="-120.300170">
        <ele>314.068</ele>
        <time>2018-12-28T16:09:40Z</time>
      </trkpt>
      <trkpt lat="37.814010" lon="-120.300040">
        <ele>315.322</ele>
        <time>2018-12-28T16:10:00Z</time>
      </trkpt>
      <trkpt lat="37.814050" lon="-120.299910">
        <ele>315.979</ele>
        <time>2018-12-28T16:10:20Z</time>
      </trkpt>
      <trkpt lat="37.814110" lon="-120.299740">
        <ele>313.805</ele>
        <time>2018-12-28T16:10:40Z</time>
      </trkpt>
      <trkpt lat="37.814180" lon="-120.299570">
        <ele>314.325</ele>
        <time>2018-12-28T16:11:00Z</time>
      </trkpt>
      <trkpt lat="37.814250" lon="-120.299420">
        <ele>317.208</ele>
        <time>2018-12-28T16:11:20Z</time>
      </trkpt>
      <trkpt lat="37.814340" lon="-120.299250">
        <ele>319.910</ele>
        <time>2018-12-28T16:11:40Z</time>
      </trkpt>
      <trkpt lat="37.814430" lon="-120.299110">
        <ele>319.698</ele>
        <time>2018-12-28T16:12:00Z</time>
      </trkpt>
      <trkpt lat="37.814500" lon="-120.299000">
        <ele>321.493</ele>
        <time>2018-12-28T16:12:20Z</time>
      </trkpt>
      <trkpt lat="37.814580" lon="-120.298910">
        <ele>323.012</ele>
        <time>2018-12-28T16:12:40Z</time>
      </trkpt>
      <trkpt lat="37.814670" lon="-120.298800">
        <ele>323.646</ele>
        <time>2018-12-28T16:13:00Z</time>
      </trkpt>
      <trkpt lat="37.814790" lon="-120.298680">
        <ele>325.292</ele>
        <time>2018-12-28T16:13:20Z</time>
      </trkpt>
      <trkpt lat="37.815340" lon="-120.298150">
        <ele>333.199</ele>
        <time>2018-12-28T16:13:40Z</time>
      </trkpt>
      <trkpt lat="37.815680" lon="-120.297830">
        <ele>338.013</ele>
        <time>2018-12-28T16:14:00Z</time>
      </trkpt>
      <trkpt lat="37.815790" lon="-120.297730">
        <ele>339.214</ele>
        <time>2018-12-28T16:14:20Z</time>
      </trkpt>
      <trkpt lat="37.815880" lon="-120.297660">
        <ele>339.754</ele>
        <time>2018-12-28T16:14:40Z</time>
      </trkpt>
      <trkpt lat="37.815960" lon="-120.297620">
        <ele>339.109</ele>
        <time>2018-12-28T16:15:00Z</time>
      </trkpt>
      <trkpt lat="37.816010" lon="-120.297590">
        <ele>339.208</ele>
        <time>2018-12-28T16:15:20Z</time>
      </trkpt>
      <trkpt lat="37.816060" lon="-120.297570">
        <ele>339.554</ele>
        <time>2018-12-28T16:15:40Z</time>
      </trkpt>
      <trkpt lat="37.816110" lon="-120.297560">
        <ele>339.812</ele>
        <time>2018-12-28T16:16:00Z</time>
      </trkpt>
      <trkpt lat="37.816170" lon="-120.297560">
        <ele>340.167</ele>
        <time>2018-12-28T16:16:20Z</time>
      </trkpt>
      <trkpt lat="37.816240" lon="-120.297570">
        <ele>340.566</ele>
        <time>2018-12-28T16:16:40Z</time>
      </trkpt>
      <trkpt lat="37.816300" lon="-120.297590">
        <ele>341.790</ele>
        <time>2018-12-28T16:17:00Z</time>
      </trkpt>
      <trkpt lat="37.816360" lon="-120.297610">
        <ele>342.966</ele>
        <time>2018-12-28T16:17:20Z</time>
      </trkpt>
      <trkpt lat="37.816430" lon="-120.297650">
        <ele>344.253</ele>
        <time>2018-12-28T16:17:40Z</time>
      </trkpt>
      <trkpt lat="37.816480" lon="-120.297700">
        <ele>345.147</ele>
        <time>2018-12-28T16:18:00Z</time>
      </trkpt>
      <trkpt lat="37.816530" lon="-120.297760">
        <ele>346.321</ele>
        <time>2018-12-28T16:18:20Z</time>
      </trkpt>
      <trkpt lat="37.816580" lon="-120.297820">
        <ele>347.841</ele>
        <time>2018-12-28T16:18:40Z</time>
      </trkpt>
      <trkpt lat="37.816620" lon="-120.297890">
        <ele>349.205</ele>
        <time>2018-12-28T16:19:00Z</time>
      </trkpt>
      <trkpt lat="37.816650" lon="-120.297970">
        <ele>350.108</ele>
        <time>2018-12-28T16:19:20Z</time>
      </trkpt>
      <trkpt lat="37.816670" lon="-120.298040">
        <ele>350.565</ele>
        <time>2018-12-28T16:19:40Z</time>
      </trkpt>
      <trkpt lat="37.816690" lon="-120.298120">
        <ele>350.733</ele>
        <time>2018-12-28T16:20:00Z</time>
      </trkpt>
      <trkpt lat="37.816710" lon="-120.298260">
        <ele>350.528</ele>
        <time>2018-12-28T16:20:20Z</time>
      </trkpt>
      <trkpt lat="37.816750" lon="-120.298560">
        <ele>350.667</ele>
        <time>2018-12-28T16:20:40Z</time>
      </trkpt>
      <trkpt lat="37.816820" lon="-120.299160">
        <ele>354.851</ele>
        <time>2018-12-28T16:21:00Z</time>
      </trkpt>
      <trkpt lat="37.816870" lon="-120.299490">
        <ele>358.017</ele>
        <time>2018-12-28T16:21:20Z</time>
      </trkpt>
      <trkpt lat="37.816890" lon="-120.299650">
        <ele>358.824</ele>
        <time>2018-12-28T16:21:40Z</time>
      </trkpt>
      <trkpt lat="37.816920" lon="-120.299770">
        <ele>359.428</ele>
        <time>2018-12-28T16:22:00Z</time>
      </trkpt>
      <trkpt lat="37.816950" lon="-120.299880">
        <ele>360.172</ele>
        <time>2018-12-28T16:22:20Z</time>
      </trkpt>
      <trkpt lat="37.817000" lon="-120.300000">
        <ele>360.913</ele>
        <time>2018-12-28T16:22:40Z</time>
      </trkpt>
      <trkpt lat="37.817050" lon="-120.300110">
        <ele>361.414</ele>
        <time>2018-12-28T16:23:00Z</time>
      </trkpt>
      <trkpt lat="37.817110" lon="-120.300210">
        <ele>363.408</ele>
        <time>2018-12-28T16:23:20Z</time>
      </trkpt>
      <trkpt lat="37.817200" lon="-120.300330">
        <ele>365.310</ele>
        <time>2018-12-28T16:23:40Z</time>
      </trkpt>
      <trkpt lat="37.817260" lon="-120.300400">
        <ele>364.918</ele>
        <time>2018-12-28T16:24:00Z</time>
      </trkpt>
      <trkpt lat="37.817380" lon="-120.300500">
        <ele>366.333</ele>
        <time>2018-12-28T16:24:20Z</time>
      </trkpt>
      <trkpt lat="37.817520" lon="-120.300620">
        <ele>369.392</ele>
        <time>2018-12-28T16:24:40Z</time>
      </trkpt>
      <trkpt lat="37.817620" lon="-120.300720">
        <ele>369.146</ele>
        <time>2018-12-28T16:25:00Z</time>
      </trkpt>
      <trkpt lat="37.817690" lon="-120.300800">
        <ele>372.152</ele>
        <time>2018-12-28T16:25:20Z</time>
      </trkpt>
      <trkpt lat="37.817750" lon="-120.300900">
        <ele>373.779</ele>
        <time>2018-12-28T16:25:40Z</time>
      </trkpt>
      <trkpt lat="37.817800" lon="-120.300980">
        <ele>373.243</ele>
        <time>2018-12-28T16:26:00Z</time>
      </trkpt>
      <trkpt lat="37.817840" lon="-120.301050">
        <ele>372.524</ele>
        <time>2018-12-28T16:26:20Z</time>
      </trkpt>
      <trkpt lat="37.817880" lon="-120.301140">
        <ele>372.404</ele>
        <time>2018-12-28T16:26:40Z</time>
      </trkpt>
      <trkpt lat="37.817920" lon="-120.301230">
        <ele>373.214</ele>
        <time>2018-12-28T16:27:00Z</time>
      </trkpt>
      <trkpt lat="37.817950" lon="-120.301320">
        <ele>375.308</ele>
        <time>2018-12-28T16:27:20Z</time>
      </trkpt>
      <trkpt lat="37.817970" lon="-120.301410">
        <ele>376.935</ele>
        <time>2018-12-28T16:27:40Z</time>
      </trkpt>
      <trkpt lat="37.817990" lon="-120.301500">
        <ele>378.263</ele>
        <time>2018-12-28T16:28:00Z</time>
      </trkpt>
      <trkpt lat="37.818010" lon="-120.301590">
        <ele>379.068</ele>
        <time>2018-12-28T16:28:20Z</time>
      </trkpt>
      <trkpt lat="37.818020" lon="-120.301770">
        <ele>379.277</ele>
        <time>2018-12-28T16:28:40Z</time>
      </trkpt>
      <trkpt lat="37.818020" lon="-120.301940">
        <ele>381.411</ele>
        <time>2018-12-28T16:29:00Z</time>
      </trkpt>
      <trkpt lat="37.818020" lon="-120.302160">
        <ele>384.397</ele>
        <time>2018-12-28T16:29:20Z</time>
      </trkpt>
      <trkpt lat="37.818010" lon="-120.302880">
        <ele>389.384</ele>
        <time>2018-12-28T16:29:40Z</time>
      </trkpt>
      <trkpt lat="37.818010" lon="-120.303190">
        <ele>389.668</ele>
        <time>2018-12-28T16:30:00Z</time>
      </trkpt>
      <trkpt lat="37.818040" lon="-120.303410">
        <ele>390.687</ele>
        <time>2018-12-28T16:30:20Z</time>
      </trkpt>
      <trkpt lat="37.818080" lon="-120.303600">
        <ele>390.842</ele>
        <time>2018-12-28T16:30:40Z</time>
      </trkpt>
      <trkpt lat="37.818130" lon="-120.303760">
        <ele>390.326</ele>
        <time>2018-12-28T16:31:00Z</time>
      </trkpt>
      <trkpt lat="37.818190" lon="-120.303910">
        <ele>392.008</ele>
        <time>2018-12-28T16:31:20Z</time>
      </trkpt>
      <trkpt lat="37.818260" lon="-120.304040">
        <ele>395.271</ele>
        <time>2018-12-28T16:31:40Z</time>
      </trkpt>
      <trkpt lat="37.818330" lon="-120.304160">
        <ele>395.089</ele>
        <time>2018-12-28T16:32:00Z</time>
      </trkpt>
      <trkpt lat="37.818420" lon="-120.304270">
        <ele>395.364</ele>
        <time>2018-12-28T16:32:20Z</time>
      </trkpt>
      <trkpt lat="37.818520" lon="-120.304400">
        <ele>398.223</ele>
        <time>2018-12-28T16:32:40Z</time>
      </trkpt>
      <trkpt lat="37.818650" lon="-120.304530">
        <ele>399.927</ele>
        <time>2018-12-28T16:33:00Z</time>
      </trkpt>
      <trkpt lat="37.818730" lon="-120.304640">
        <ele>399.053</ele>
        <time>2018-12-28T16:33:20Z</time>
      </trkpt>
      <trkpt lat="37.818810" lon="-120.304740">
        <ele>402.690</ele>
        <time>2018-12-28T16:33:40Z</time>
      </trkpt>
      <trkpt lat="37.818870" lon="-120.304840">
        <ele>403.864</ele>
        <time>2018-12-28T16:34:00Z</time>
      </trkpt>
      <trkpt lat="37.818920" lon="-120.304940">
        <ele>403.486</ele>
        <time>2018-12-28T16:34:20Z</time>
      </trkpt>
      <trkpt lat="37.818980" lon="-120.305060">
        <ele>403.360</ele>
        <time>2018-12-28T16:34:40Z</time>
      </trkpt>
      <trkpt lat="37.819020" lon="-120.305170">
        <ele>403.626</ele>
        <time>2018-12-28T16:35:00Z</time>
      </trkpt>
      <trkpt lat="37.819050" lon="-120.305280">
        <ele>405.308</ele>
        <time>2018-12-28T16:35:20Z</time>
      </trkpt>
      <trkpt lat="37.819080" lon="-120.305420">
        <ele>406.131</ele>
        <time>2018-12-28T16:35:40Z</time>
      </trkpt>
      <trkpt lat="37.819100" lon="-120.305530">
        <ele>405.439</ele>
        <time>2018-12-28T16:36:00Z</time>
      </trkpt>
      <trkpt lat="37.819110" lon="-120.305630">
        <ele>404.324</ele>
        <time>2018-12-28T16:36:20Z</time>
      </trkpt>
      <trkpt lat="37.819110" lon="-120.305720">
        <ele>403.813</ele>
        <time>2018-12-28T16:36:40Z</time>
      </trkpt>
      <trkpt lat="37.819110" lon="-120.305830">
        <ele>404.847</ele>
        <time>2018-12-28T16:37:00Z</time>
      </trkpt>
      <trkpt lat="37.819110" lon="-120.305900">
        <ele>405.573</ele>
        <time>2018-12-28T16:37:20Z</time>
      </trkpt>
      <trkpt lat="37.819110" lon="-120.305950">
        <ele>405.930</ele>
        <time>2018-12-28T16:37:40Z</time>
      </trkpt>
      <trkpt lat="37.819100" lon="-120.306020">
        <ele>406.774</ele>
        <time>2018-12-28T16:38:00Z</time>
      </trkpt>
      <trkpt lat="37.819080" lon="-120.306120">
        <ele>408.264</ele>
        <time>2018-12-28T16:38:20Z</time>
      </trkpt>
      <trkpt lat="37.819050" lon="-120.306360">
        <ele>411.406</ele>
        <time>2018-12-28T16:38:40Z</time>
      </trkpt>
      <trkpt lat="37.819020" lon="-120.306530">
        <ele>413.116</ele>
        <time>2018-12-28T16:39:00Z</time>
      </trkpt>
      <trkpt lat="37.819010" lon="-120.306600">
        <ele>413.108</ele>
        <time>2018-12-28T16:39:20Z</time>
      </trkpt>
      <trkpt lat="37.819010" lon="-120.306680">
        <ele>413.739</ele>
        <time>2018-12-28T16:39:40Z</time>
      </trkpt>
      <trkpt lat="37.819010" lon="-120.306750">
        <ele>414.237</ele>
        <time>2018-12-28T16:40:00Z</time>
      </trkpt>
      <trkpt lat="37.819010" lon="-120.306810">
        <ele>414.612</ele>
        <time>2018-12-28T16:40:20Z</time>
      </trkpt>
      <trkpt lat="37.819010" lon="-120.306870">
        <ele>415.271</ele>
        <time>2018-12-28T16:40:40Z</time>
      </trkpt>
      <trkpt lat="37.819020" lon="-120.306930">
        <ele>416.175</ele>
        <time>2018-12-28T16:41:00Z</time>
      </trkpt>
      <trkpt lat="37.819040" lon="-120.307000">
        <ele>416.891</ele>
        <time>2018-12-28T16:41:20Z</time>
      </trkpt>
      <trkpt lat="37.819070" lon="-120.307080">
        <ele>417.458</ele>
        <time>2018-12-28T16:41:40Z</time>
      </trkpt>
      <trkpt lat="37.819100" lon="-120.307140">
        <ele>418.472</ele>
        <time>2018-12-28T16:42:00Z</time>
      </trkpt>
      <trkpt lat="37.819130" lon="-120.307200">
        <ele>419.445</ele>
        <time>2018-12-28T16:42:20Z</time>
      </trkpt>
      <trkpt lat="37.819170" lon="-120.307250">
        <ele>420.047</ele>
        <time>2018-12-28T16:42:40Z</time>
      </trkpt>
      <trkpt lat="37.819210" lon="-120.307300">
        <ele>420.411</ele>
        <time>2018-12-28T16:43:00Z</time>
      </trkpt>
      <trkpt lat="37.819260" lon="-120.307340">
        <ele>420.508</ele>
        <time>2018-12-28T16:43:20Z</time>
      </trkpt>
      <trkpt lat="37.819300" lon="-120.307370">
        <ele>420.457</ele>
        <time>2018-12-28T16:43:40Z</time>
      </trkpt>
      <trkpt lat="37.819350" lon="-120.307400">
        <ele>420.885</ele>
        <time>2018-12-28T16:44:00Z</time>
      </trkpt>
      <trkpt lat="37.819400" lon="-120.307420">
        <ele>420.850</ele>
        <time>2018-12-28T16:44:20Z</time>
      </trkpt>
      <trkpt lat="37.819450" lon="-120.307440">
        <ele>420.519</ele>
        <time>2018-12-28T16:44:40Z</time>
      </trkpt>
      <trkpt lat="37.819530" lon="-120.307440">
        <ele>419.883</ele>
        <time>2018-12-28T16:45:00Z</time>
      </trkpt>
      <trkpt lat="37.819600" lon="-120.307440">
        <ele>419.499</ele>
        <time>2018-12-28T16:45:20Z</time>
      </trkpt>
      <trkpt lat="37.819660" lon="-120.307430">
        <ele>420.236</ele>
        <time>2018-12-28T16:45:40Z</time>
      </trkpt>
      <trkpt lat="37.819700" lon="-120.307410">
        <ele>421.020</ele>
        <time>2018-12-28T16:46:00Z</time>
      </trkpt>
      <trkpt lat="37.819750" lon="-120.307390">
        <ele>422.299</ele>
        <time>2018-12-28T16:46:20Z</time>
      </trkpt>
      <trkpt lat="37.819800" lon="-120.307360">
        <ele>424.007</ele>
        <time>2018-12-28T16:46:40Z</time>
      </trkpt>
      <trkpt lat="37.819880" lon="-120.307300">
        <ele>424.127</ele>
        <time>2018-12-28T16:47:00Z</time>
      </trkpt>
      <trkpt lat="37.819920" lon="-120.307260">
        <ele>423.208</ele>
        <time>2018-12-28T16:47:20Z</time>
      </trkpt>
      <trkpt lat="37.819960" lon="-120.307220">
        <ele>423.052</ele>
        <time>2018-12-28T16:47:40Z</time>
      </trkpt>
      <trkpt lat="37.820000" lon="-120.307160">
        <ele>423.780</ele>
        <time>2018-12-28T16:48:00Z</time>
      </trkpt>
      <trkpt lat="37.820030" lon="-120.307090">
        <ele>425.465</ele>
        <time>2018-12-28T16:48:20Z</time>
      </trkpt>
      <trkpt lat="37.820060" lon="-120.307030">
        <ele>426.664</ele>
        <time>2018-12-28T16:48:40Z</time>
      </trkpt>
      <trkpt lat="37.820080" lon="-120.306970">
        <ele>427.438</ele>
        <time>2018-12-28T16:49:00Z</time>
      </trkpt>
      <trkpt lat="37.820090" lon="-120.306910">
        <ele>428.084</ele>
        <time>2018-12-28T16:49:20Z</time>
      </trkpt>
      <trkpt lat="37.820100" lon="-120.306840">
        <ele>428.661</ele>
        <time>2018-12-28T16:49:40Z</time>
      </trkpt>
      <trkpt lat="37.820100" lon="-120.306740">
        <ele>429.095</ele>
        <time>2018-12-28T16:50:00Z</time>
      </trkpt>
      <trkpt lat="37.820100" lon="-120.306650">
        <ele>429.246</ele>
        <time>2018-12-28T16:50:20Z</time>
      </trkpt>
      <trkpt lat="37.820090" lon="-120.306540">
        <ele>429.288</ele>
        <time>2018-12-28T16:50:40Z</time>
      </trkpt>
      <trkpt lat="37.820060" lon="-120.306310">
        <ele>432.016</ele>
        <time>2018-12-28T16:51:00Z</time>
      </trkpt>
      <trkpt lat="37.820010" lon="-120.305820">
        <ele>434.508</ele>
        <time>2018-12-28T16:51:20Z</time>
      </trkpt>
      <trkpt lat="37.819990" lon="-120.305570">
        <ele>436.337</ele>
        <time>2018-12-28T16:51:40Z</time>
      </trkpt>
      <trkpt lat="37.819970" lon="-120.305430">
        <ele>437.675</ele>
        <time>2018-12-28T16:52:00Z</time>
      </trkpt>
      <trkpt lat="37.819950" lon="-120.305330">
        <ele>438.210</ele>
        <time>2018-12-28T16:52:20Z</time>
      </trkpt>
      <trkpt lat="37.819930" lon="-120.305240">
        <ele>438.539</ele>
        <time>2018-12-28T16:52:40Z</time>
      </trkpt>
      <trkpt lat="37.819900" lon="-120.305180">
        <ele>438.023</ele>
        <time>2018-12-28T16:53:00Z</time>
      </trkpt>
      <trkpt lat="37.819860" lon="-120.305110">
        <ele>437.819</ele>
        <time>2018-12-28T16:53:20Z</time>
      </trkpt>
      <trkpt lat="37.819820" lon="-120.305040">
        <ele>439.196</ele>
        <time>2018-12-28T16:53:40Z</time>
      </trkpt>
      <trkpt lat="37.819770" lon="-120.304990">
        <ele>439.540</ele>
        <time>2018-12-28T16:54:00Z</time>
      </trkpt>
      <trkpt lat="37.819710" lon="-120.304920">
        <ele>440.384</ele>
        <time>2018-12-28T16:54:20Z</time>
      </trkpt>
      <trkpt lat="37.819610" lon="-120.304820">
        <ele>441.107</ele>
        <time>2018-12-28T16:54:40Z</time>
      </trkpt>
      <trkpt lat="37.819510" lon="-120.304710">
        <ele>442.217</ele>
        <time>2018-12-28T16:55:00Z</time>
      </trkpt>
      <trkpt lat="37.819450" lon="-120.304640">
        <ele>442.708</ele>
        <time>2018-12-28T16:55:20Z</time>
      </trkpt>
      <trkpt lat="37.819390" lon="-120.304540">
        <ele>443.251</ele>
        <time>2018-12-28T16:55:40Z</time>
      </trkpt>
      <trkpt lat="37.819340" lon="-120.304430">
        <ele>442.189</ele>
        <time>2018-12-28T16:56:00Z</time>
      </trkpt>
      <trkpt lat="37.819270" lon="-120.304270">
        <ele>440.774</ele>
        <time>2018-12-28T16:56:20Z</time>
      </trkpt>
      <trkpt lat="37.819230" lon="-120.304130">
        <ele>443.193</ele>
        <time>2018-12-28T16:56:40Z</time>
      </trkpt>
      <trkpt lat="37.819210" lon="-120.304070">
        <ele>443.847</ele>
        <time>2018-12-28T16:57:00Z</time>
      </trkpt>
      <trkpt lat="37.819190" lon="-120.304000">
        <ele>444.163</ele>
        <time>2018-12-28T16:57:20Z</time>
      </trkpt>
      <trkpt lat="37.819170" lon="-120.303930">
        <ele>443.410</ele>
        <time>2018-12-28T16:57:40Z</time>
      </trkpt>
      <trkpt lat="37.819170" lon="-120.303860">
        <ele>443.884</ele>
        <time>2018-12-28T16:58:00Z</time>
      </trkpt>
      <trkpt lat="37.819180" lon="-120.303790">
        <ele>444.615</ele>
        <time>2018-12-28T16:58:20Z</time>
      </trkpt>
      <trkpt lat="37.819190" lon="-120.303740">
        <ele>445.265</ele>
        <time>2018-12-28T16:58:40Z</time>
      </trkpt>
      <trkpt lat="37.819200" lon="-120.303690">
        <ele>445.011</ele>
        <time>2018-12-28T16:59:00Z</time>
      </trkpt>
      <trkpt lat="37.819230" lon="-120.303640">
        <ele>445.508</ele>
        <time>2018-12-28T16:59:20Z</time>
      </trkpt>
      <trkpt lat="37.819260" lon="-120.303600">
        <ele>446.084</ele>
        <time>2018-12-28T16:59:40Z</time>
      </trkpt>
      <trkpt lat="37.819320" lon="-120.303530">
        <ele>446.752</ele>
        <time>2018-12-28T17:00:00Z</time>
      </trkpt>
      <trkpt lat="37.819430" lon="-120.303420">
        <ele>447.477</ele>
        <time>2018-12-28T17:00:20Z</time>
      </trkpt>
      <trkpt lat="37.819520" lon="-120.303320">
        <ele>447.716</ele>
        <time>2018-12-28T17:00:40Z</time>
      </trkpt>
      <trkpt lat="37.819620" lon="-120.303200">
        <ele>448.080</ele>
        <time>2018-12-28T17:01:00Z</time>
      </trkpt>
      <trkpt lat="37.819770" lon="-120.302990">
        <ele>448.846</ele>
        <time>2018-12-28T17:01:20Z</time>
      </trkpt>
      <trkpt lat="37.819860" lon="-120.302870">
        <ele>450.033</ele>
        <time>2018-12-28T17:01:40Z</time>
      </trkpt>
      <trkpt lat="37.819920" lon="-120.302780">
        <ele>451.367</ele>
        <time>2018-12-28T17:02:00Z</time>
      </trkpt>
      <trkpt lat="37.819950" lon="-120.302720">
        <ele>451.876</ele>
        <time>2018-12-28T17:02:20Z</time>
      </trkpt>
      <trkpt lat="37.819960" lon="-120.302680">
        <ele>452.090</ele>
        <time>2018-12-28T17:02:40Z</time>
      </trkpt>
      <trkpt lat="37.819980" lon="-120.302640">
        <ele>452.319</ele>
        <time>2018-12-28T17:03:00Z</time>
      </trkpt>
      <trkpt lat="37.819990" lon="-120.302590">
        <ele>452.508</ele>
        <time>2018-12-28T17:03:20Z</time>
      </trkpt>
      <trkpt lat="37.820000" lon="-120.302520">
        <ele>452.920</ele>
        <time>2018-12-28T17:03:40Z</time>
      </trkpt>
      <trkpt lat="37.820000" lon="-120.302430">
        <ele>453.088</ele>
        <time>2018-12-28T17:04:00Z</time>
      </trkpt>
      <trkpt lat="37.819990" lon="-120.302330">
        <ele>453.493</ele>
        <time>2018-12-28T17:04:20Z</time>
      </trkpt>
      <trkpt lat="37.819960" lon="-120.302030">
        <ele>456.672</ele>
        <time>2018-12-28T17:04:40Z</time>
      </trkpt>
      <trkpt lat="37.819930" lon="-120.301530">
        <ele>458.846</ele>
        <time>2018-12-28T17:05:00Z</time>
      </trkpt>
      <trkpt lat="37.819890" lon="-120.301140">
        <ele>458.772</ele>
        <time>2018-12-28T17:05:20Z</time>
      </trkpt>
      <trkpt lat="37.819880" lon="-120.301060">
        <ele>458.819</ele>
        <time>2018-12-28T17:05:40Z</time>
      </trkpt>
      <trkpt lat="37.819880" lon="-120.300990">
        <ele>459.163</ele>
        <time>2018-12-28T17:06:00Z</time>
      </trkpt>
      <trkpt lat="37.819880" lon="-120.300930">
        <ele>459.233</ele>
        <time>2018-12-28T17:06:20Z</time>
      </trkpt>
      <trkpt lat="37.819900" lon="-120.300870">
        <ele>459.823</ele>
        <time>2018-12-28T17:06:40Z</time>
      </trkpt>
      <trkpt lat="37.819920" lon="-120.300810">
        <ele>460.215</ele>
        <time>2018-12-28T17:07:00Z</time>
      </trkpt>
      <trkpt lat="37.819950" lon="-120.300750">
        <ele>460.408</ele>
        <time>2018-12-28T17:07:20Z</time>
      </trkpt>
      <trkpt lat="37.819980" lon="-120.300700">
        <ele>460.496</ele>
        <time>2018-12-28T17:07:40Z</time>
      </trkpt>
      <trkpt lat="37.820030" lon="-120.300660">
        <ele>460.224</ele>
        <time>2018-12-28T17:08:00Z</time>
      </trkpt>
      <trkpt lat="37.820080" lon="-120.300600">
        <ele>460.469</ele>
        <time>2018-12-28T17:08:20Z</time>
      </trkpt>
      <trkpt lat="37.820120" lon="-120.300540">
        <ele>461.088</ele>
        <time>2018-12-28T17:08:40Z</time>
      </trkpt>
      <trkpt lat="37.820160" lon="-120.300480">
        <ele>462.572</ele>
        <time>2018-12-28T17:09:00Z</time>
      </trkpt>
      <trkpt lat="37.820170" lon="-120.300440">
        <ele>463.048</ele>
        <time>2018-12-28T17:09:20Z</time>
      </trkpt>
      <trkpt lat="37.820190" lon="-120.300400">
        <ele>463.835</ele>
        <time>2018-12-28T17:09:40Z</time>
      </trkpt>
      <trkpt lat="37.820210" lon="-120.300320">
        <ele>464.539</ele>
        <time>2018-12-28T17:10:00Z</time>
      </trkpt>
      <trkpt lat="37.820230" lon="-120.300210">
        <ele>465.054</ele>
        <time>2018-12-28T17:10:20Z</time>
      </trkpt>
      <trkpt lat="37.820250" lon="-120.300130">
        <ele>465.456</ele>
        <time>2018-12-28T17:10:40Z</time>
      </trkpt>
      <trkpt lat="37.820270" lon="-120.300070">
        <ele>464.811</ele>
        <time>2018-12-28T17:11:00Z</time>
      </trkpt>
      <trkpt lat="37.820290" lon="-120.300030">
        <ele>464.608</ele>
        <time>2018-12-28T17:11:20Z</time>
      </trkpt>
      <trkpt lat="37.820320" lon="-120.299990">
        <ele>464.768</ele>
        <time>2018-12-28T17:11:40Z</time>
      </trkpt>
      <trkpt lat="37.820360" lon="-120.299960">
        <ele>465.456</ele>
        <time>2018-12-28T17:12:00Z</time>
      </trkpt>
      <trkpt lat="37.820400" lon="-120.299920">
        <ele>465.691</ele>
        <time>2018-12-28T17:12:20Z</time>
      </trkpt>
      <trkpt lat="37.820440" lon="-120.299880">
        <ele>466.170</ele>
        <time>2018-12-28T17:12:40Z</time>
      </trkpt>
      <trkpt lat="37.820470" lon="-120.299830">
        <ele>466.844</ele>
        <time>2018-12-28T17:13:00Z</time>
      </trkpt>
      <trkpt lat="37.820510" lon="-120.299780">
        <ele>468.410</ele>
        <time>2018-12-28T17:13:20Z</time>
      </trkpt>
      <trkpt lat="37.820520" lon="-120.299740">
        <ele>468.687</ele>
        <time>2018-12-28T17:13:40Z</time>
      </trkpt>
      <trkpt lat="37.820550" lon="-120.299670">
        <ele>469.681</ele>
        <time>2018-12-28T17:14:00Z</time>
      </trkpt>
      <trkpt lat="37.820570" lon="-120.299610">
        <ele>470.297</ele>
        <time>2018-12-28T17:14:20Z</time>
      </trkpt>
      <trkpt lat="37.820640" lon="-120.299320">
        <ele>466.723</ele>
        <time>2018-12-28T17:14:40Z</time>
      </trkpt>
      <trkpt lat="37.820660" lon="-120.299240">
        <ele>467.525</ele>
        <time>2018-12-28T17:15:00Z</time>
      </trkpt>
      <trkpt lat="37.820660" lon="-120.299200">
        <ele>467.708</ele>
        <time>2018-12-28T17:15:20Z</time>
      </trkpt>
      <trkpt lat="37.820670" lon="-120.299160">
        <ele>468.262</ele>
        <time>2018-12-28T17:15:40Z</time>
      </trkpt>
      <trkpt lat="37.820670" lon="-120.299100">
        <ele>468.570</ele>
        <time>2018-12-28T17:16:00Z</time>
      </trkpt>
      <trkpt lat="37.820670" lon="-120.299060">
        <ele>468.765</ele>
        <time>2018-12-28T17:16:20Z</time>
      </trkpt>
      <trkpt lat="37.820660" lon="-120.299020">
        <ele>468.944</ele>
        <time>2018-12-28T17:16:40Z</time>
      </trkpt>
      <trkpt lat="37.820650" lon="-120.298980">
        <ele>470.558</ele>
        <time>2018-12-28T17:17:00Z</time>
      </trkpt>
      <trkpt lat="37.820630" lon="-120.298950">
        <ele>471.294</ele>
        <time>2018-12-28T17:17:20Z</time>
      </trkpt>
      <trkpt lat="37.820610" lon="-120.298910">
        <ele>472.351</ele>
        <time>2018-12-28T17:17:40Z</time>
      </trkpt>
      <trkpt lat="37.820590" lon="-120.298880">
        <ele>472.955</ele>
        <time>2018-12-28T17:18:00Z</time>
      </trkpt>
      <trkpt lat="37.820560" lon="-120.298860">
        <ele>472.634</ele>
        <time>2018-12-28T17:18:20Z</time>
      </trkpt>
      <trkpt lat="37.820530" lon="-120.298840">
        <ele>472.355</ele>
        <time>2018-12-28T17:18:40Z</time>
      </trkpt>
      <trkpt lat="37.820490" lon="-120.298820">
        <ele>471.610</ele>
        <time>2018-12-28T17:19:00Z</time>
      </trkpt>
      <trkpt lat="37.820430" lon="-120.298800">
        <ele>469.908</ele>
        <time>2018-12-28T17:19:20Z</time>
      </trkpt>
      <trkpt lat="37.820370" lon="-120.298790">
        <ele>469.926</ele>
        <time>2018-12-28T17:19:40Z</time>
      </trkpt>
      <trkpt lat="37.820300" lon="-120.298760">
        <ele>471.484</ele>
        <time>2018-12-28T17:20:00Z</time>
      </trkpt>
      <trkpt lat="37.820260" lon="-120.298740">
        <ele>472.559</ele>
        <time>2018-12-28T17:20:20Z</time>
      </trkpt>
      <trkpt lat="37.820210" lon="-120.298720">
        <ele>473.698</ele>
        <time>2018-12-28T17:20:40Z</time>
      </trkpt>
      <trkpt lat="37.820150" lon="-120.298680">
        <ele>475.232</ele>
        <time>2018-12-28T17:21:00Z</time>
      </trkpt>
      <trkpt lat="37.820080" lon="-120.298610">
        <ele>475.588</ele>
        <time>2018-12-28T17:21:20Z</time>
      </trkpt>
      <trkpt lat="37.820010" lon="-120.298540">
        <ele>475.965</ele>
        <time>2018-12-28T17:21:40Z</time>
      </trkpt>
      <trkpt lat="37.819970" lon="-120.298500">
        <ele>476.249</ele>
        <time>2018-12-28T17:22:00Z</time>
      </trkpt>
      <trkpt lat="37.819920" lon="-120.298460">
        <ele>476.378</ele>
        <time>2018-12-28T17:22:20Z</time>
      </trkpt>
      <trkpt lat="37.819840" lon="-120.298410">
        <ele>475.833</ele>
        <time>2018-12-28T17:22:40Z</time>
      </trkpt>
      <trkpt lat="37.819750" lon="-120.298350">
        <ele>476.026</ele>
        <time>2018-12-28T17:23:00Z</time>
      </trkpt>
      <trkpt lat="37.819700" lon="-120.298310">
        <ele>476.008</ele>
        <time>2018-12-28T17:23:20Z</time>
      </trkpt>
      <trkpt lat="37.819650" lon="-120.298250">
        <ele>476.590</ele>
        <time>2018-12-28T17:23:40Z</time>
      </trkpt>
      <trkpt lat="37.819620" lon="-120.298200">
        <ele>477.018</ele>
        <time>2018-12-28T17:24:00Z</time>
      </trkpt>
      <trkpt lat="37.819600" lon="-120.298150">
        <ele>476.863</ele>
        <time>2018-12-28T17:24:20Z</time>
      </trkpt>
      <trkpt lat="37.819580" lon="-120.298090">
        <ele>476.352</ele>
        <time>2018-12-28T17:24:40Z</time>
      </trkpt>
      <trkpt lat="37.819560" lon="-120.298040">
        <ele>475.616</ele>
        <time>2018-12-28T17:25:00Z</time>
      </trkpt>
      <trkpt lat="37.819550" lon="-120.297960">
        <ele>475.442</ele>
        <time>2018-12-28T17:25:20Z</time>
      </trkpt>
      <trkpt lat="37.819550" lon="-120.297860">
        <ele>475.989</ele>
        <time>2018-12-28T17:25:40Z</time>
      </trkpt>
      <trkpt lat="37.819550" lon="-120.297730">
        <ele>476.643</ele>
        <time>2018-12-28T17:26:00Z</time>
      </trkpt>
      <trkpt lat="37.819560" lon="-120.297610">
        <ele>477.627</ele>
        <time>2018-12-28T17:26:20Z</time>
      </trkpt>
      <trkpt lat="37.819580" lon="-120.297470">
        <ele>479.168</ele>
        <time>2018-12-28T17:26:40Z</time>
      </trkpt>
      <trkpt lat="37.819610" lon="-120.297360">
        <ele>481.214</ele>
        <time>2018-12-28T17:27:00Z</time>
      </trkpt>
      <trkpt lat="37.819640" lon="-120.297240">
        <ele>482.108</ele>
        <time>2018-12-28T17:27:20Z</time>
      </trkpt>
      <trkpt lat="37.819680" lon="-120.297140">
        <ele>483.495</ele>
        <time>2018-12-28T17:27:40Z</time>
      </trkpt>
      <trkpt lat="37.819730" lon="-120.297040">
        <ele>483.983</ele>
        <time>2018-12-28T17:28:00Z</time>
      </trkpt>
      <trkpt lat="37.819800" lon="-120.296930">
        <ele>483.878</ele>
        <time>2018-12-28T17:28:20Z</time>
      </trkpt>
      <trkpt lat="37.819900" lon="-120.296820">
        <ele>485.947</ele>
        <time>2018-12-28T17:28:40Z</time>
      </trkpt>
      <trkpt lat="37.819970" lon="-120.296720">
        <ele>486.721</ele>
        <time>2018-12-28T17:29:00Z</time>
      </trkpt>
      <trkpt lat="37.820020" lon="-120.296640">
        <ele>486.827</ele>
        <time>2018-12-28T17:29:20Z</time>
      </trkpt>
      <trkpt lat="37.820040" lon="-120.296610">
        <ele>486.874</ele>
        <time>2018-12-28T17:29:40Z</time>
      </trkpt>
      <trkpt lat="37.820050" lon="-120.296570">
        <ele>485.938</ele>
        <time>2018-12-28T17:30:00Z</time>
      </trkpt>
      <trkpt lat="37.820070" lon="-120.296510">
        <ele>485.488</ele>
        <time>2018-12-28T17:30:20Z</time>
      </trkpt>
      <trkpt lat="37.820080" lon="-120.296480">
        <ele>485.924</ele>
        <time>2018-12-28T17:30:40Z</time>
      </trkpt>
      <trkpt lat="37.820090" lon="-120.296440">
        <ele>486.226</ele>
        <time>2018-12-28T17:31:00Z</time>
      </trkpt>
      <trkpt lat="37.820090" lon="-120.296380">
        <ele>486.008</ele>
        <time>2018-12-28T17:31:20Z</time>
      </trkpt>
      <trkpt lat="37.820080" lon="-120.296310">
        <ele>485.531</ele>
        <time>2018-12-28T17:31:40Z</time>
      </trkpt>
      <trkpt lat="37.820060" lon="-120.296260">
        <ele>485.179</ele>
        <time>2018-12-28T17:32:00Z</time>
      </trkpt>
      <trkpt lat="37.820040" lon="-120.296220">
        <ele>485.634</ele>
        <time>2018-12-28T17:32:20Z</time>
      </trkpt>
      <trkpt lat="37.820010" lon="-120.296170">
        <ele>486.743</ele>
        <time>2018-12-28T17:32:40Z</time>
      </trkpt>
      <trkpt lat="37.819980" lon="-120.296140">
        <ele>487.327</ele>
        <time>2018-12-28T17:33:00Z</time>
      </trkpt>
      <trkpt lat="37.819950" lon="-120.296120">
        <ele>487.813</ele>
        <time>2018-12-28T17:33:20Z</time>
      </trkpt>
      <trkpt lat="37.819900" lon="-120.296090">
        <ele>488.670</ele>
        <time>2018-12-28T17:33:40Z</time>
      </trkpt>
      <trkpt lat="37.819860" lon="-120.296070">
        <ele>489.264</ele>
        <time>2018-12-28T17:34:00Z</time>
      </trkpt>
      <trkpt lat="37.819700" lon="-120.296010">
        <ele>489.098</ele>
        <time>2018-12-28T17:34:20Z</time>
      </trkpt>
      <trkpt lat="37.819570" lon="-120.295960">
        <ele>489.915</ele>
        <time>2018-12-28T17:34:40Z</time>
      </trkpt>
      <trkpt lat="37.819490" lon="-120.295930">
        <ele>491.826</ele>
        <time>2018-12-28T17:35:00Z</time>
      </trkpt>
      <trkpt lat="37.819420" lon="-120.295910">
        <ele>493.008</ele>
        <time>2018-12-28T17:35:20Z</time>
      </trkpt>
      <trkpt lat="37.819360" lon="-120.295890">
        <ele>494.182</ele>
        <time>2018-12-28T17:35:40Z</time>
      </trkpt>
      <trkpt lat="37.819300" lon="-120.295880">
        <ele>494.620</ele>
        <time>2018-12-28T17:36:00Z</time>
      </trkpt>
      <trkpt lat="37.819240" lon="-120.295880">
        <ele>494.985</ele>
        <time>2018-12-28T17:36:20Z</time>
      </trkpt>
      <trkpt lat="37.819170" lon="-120.295880">
        <ele>495.354</ele>
        <time>2018-12-28T17:36:40Z</time>
      </trkpt>
      <trkpt lat="37.819080" lon="-120.295900">
        <ele>494.918</ele>
        <time>2018-12-28T17:37:00Z</time>
      </trkpt>
      <trkpt lat="37.818960" lon="-120.295910">
        <ele>495.224</ele>
        <time>2018-12-28T17:37:20Z</time>
      </trkpt>
      <trkpt lat="37.818880" lon="-120.295920">
        <ele>495.221</ele>
        <time>2018-12-28T17:37:40Z</time>
      </trkpt>
      <trkpt lat="37.818820" lon="-120.295920">
        <ele>495.535</ele>
        <time>2018-12-28T17:38:00Z</time>
      </trkpt>
      <trkpt lat="37.818740" lon="-120.295900">
        <ele>496.653</ele>
        <time>2018-12-28T17:38:20Z</time>
      </trkpt>
      <trkpt lat="37.818690" lon="-120.295880">
        <ele>496.304</ele>
        <time>2018-12-28T17:38:40Z</time>
      </trkpt>
      <trkpt lat="37.818630" lon="-120.295850">
        <ele>496.114</ele>
        <time>2018-12-28T17:39:00Z</time>
      </trkpt>
      <trkpt lat="37.818570" lon="-120.295800">
        <ele>496.108</ele>
        <time>2018-12-28T17:39:20Z</time>
      </trkpt>
      <trkpt lat="37.818540" lon="-120.295760">
        <ele>496.238</ele>
        <time>2018-12-28T17:39:40Z</time>
      </trkpt>
      <trkpt lat="37.818510" lon="-120.295720">
        <ele>496.396</ele>
        <time>2018-12-28T17:40:00Z</time>
      </trkpt>
      <trkpt lat="37.818480" lon="-120.295670">
        <ele>495.971</ele>
        <time>2018-12-28T17:40:20Z</time>
      </trkpt>
      <trkpt lat="37.818470" lon="-120.295630">
        <ele>495.740</ele>
        <time>2018-12-28T17:40:40Z</time>
      </trkpt>
      <trkpt lat="37.818460" lon="-120.295570">
        <ele>495.544</ele>
        <time>2018-12-28T17:41:00Z</time>
      </trkpt>
      <trkpt lat="37.818450" lon="-120.295520">
        <ele>495.270</ele>
        <time>2018-12-28T17:41:20Z</time>
      </trkpt>
      <trkpt lat="37.818460" lon="-120.295460">
        <ele>496.157</ele>
        <time>2018-12-28T17:41:40Z</time>
      </trkpt>
      <trkpt lat="37.818460" lon="-120.295430">
        <ele>496.331</ele>
        <time>2018-12-28T17:42:00Z</time>
      </trkpt>
      <trkpt lat="37.818480" lon="-120.295400">
        <ele>497.383</ele>
        <time>2018-12-28T17:42:20Z</time>
      </trkpt>
      <trkpt lat="37.818500" lon="-120.295330">
        <ele>497.725</ele>
        <time>2018-12-28T17:42:40Z</time>
      </trkpt>
      <trkpt lat="37.818570" lon="-120.295220">
        <ele>500.117</ele>
        <time>2018-12-28T17:43:00Z</time>
      </trkpt>
      <trkpt lat="37.818630" lon="-120.295110">
        <ele>501.108</ele>
        <time>2018-12-28T17:43:20Z</time>
      </trkpt>
      <trkpt lat="37.818730" lon="-120.294960">
        <ele>501.741</ele>
        <time>2018-12-28T17:43:40Z</time>
      </trkpt>
      <trkpt lat="37.818930" lon="-120.294660">
        <ele>501.179</ele>
        <time>2018-12-28T17:44:00Z</time>
      </trkpt>
      <trkpt lat="37.819050" lon="-120.294470">
        <ele>502.444</ele>
        <time>2018-12-28T17:44:20Z</time>
      </trkpt>
      <trkpt lat="37.819140" lon="-120.294310">
        <ele>504.733</ele>
        <time>2018-12-28T17:44:40Z</time>
      </trkpt>
      <trkpt lat="37.819220" lon="-120.294140">
        <ele>503.847</ele>
        <time>2018-12-28T17:45:00Z</time>
      </trkpt>
      <trkpt lat="37.819280" lon="-120.294040">
        <ele>503.823</ele>
        <time>2018-12-28T17:45:20Z</time>
      </trkpt>
      <trkpt lat="37.819340" lon="-120.293950">
        <ele>505.290</ele>
        <time>2018-12-28T17:45:40Z</time>
      </trkpt>
      <trkpt lat="37.819400" lon="-120.293880">
        <ele>506.274</ele>
        <time>2018-12-28T17:46:00Z</time>
      </trkpt>
      <trkpt lat="37.819440" lon="-120.293840">
        <ele>506.514</ele>
        <time>2018-12-28T17:46:20Z</time>
      </trkpt>
      <trkpt lat="37.819480" lon="-120.293810">
        <ele>506.854</ele>
        <time>2018-12-28T17:46:40Z</time>
      </trkpt>
      <trkpt lat="37.819530" lon="-120.293770">
        <ele>506.609</ele>
        <time>2018-12-28T17:47:00Z</time>
      </trkpt>
      <trkpt lat="37.819570" lon="-120.293750">
        <ele>506.708</ele>
        <time>2018-12-28T17:47:20Z</time>
      </trkpt>
      <trkpt lat="37.819610" lon="-120.293740">
        <ele>506.624</ele>
        <time>2018-12-28T17:47:40Z</time>
      </trkpt>
      <trkpt lat="37.819660" lon="-120.293730">
        <ele>506.342</ele>
        <time>2018-12-28T17:48:00Z</time>
      </trkpt>
      <trkpt lat="37.819710" lon="-120.293740">
        <ele>507.097</ele>
        <time>2018-12-28T17:48:20Z</time>
      </trkpt>
      <trkpt lat="37.819770" lon="-120.293750">
        <ele>507.776</ele>
        <time>2018-12-28T17:48:40Z</time>
      </trkpt>
      <trkpt lat="37.819830" lon="-120.293780">
        <ele>509.220</ele>
        <time>2018-12-28T17:49:00Z</time>
      </trkpt>
      <trkpt lat="37.819900" lon="-120.293820">
        <ele>510.996</ele>
        <time>2018-12-28T17:49:20Z</time>
      </trkpt>
      <trkpt lat="37.820000" lon="-120.293870">
        <ele>512.483</ele>
        <time>2018-12-28T17:49:40Z</time>
      </trkpt>
      <trkpt lat="37.820070" lon="-120.293880">
        <ele>512.497</ele>
        <time>2018-12-28T17:50:00Z</time>
      </trkpt>
      <trkpt lat="37.820120" lon="-120.293890">
        <ele>512.482</ele>
        <time>2018-12-28T17:50:20Z</time>
      </trkpt>
      <trkpt lat="37.820180" lon="-120.293880">
        <ele>512.543</ele>
        <time>2018-12-28T17:50:40Z</time>
      </trkpt>
      <trkpt lat="37.820210" lon="-120.293870">
        <ele>512.517</ele>
        <time>2018-12-28T17:51:00Z</time>
      </trkpt>
      <trkpt lat="37.820270" lon="-120.293850">
        <ele>512.508</ele>
        <time>2018-12-28T17:51:20Z</time>
      </trkpt>
      <trkpt lat="37.820340" lon="-120.293810">
        <ele>512.081</ele>
        <time>2018-12-28T17:51:40Z</time>
      </trkpt>
      <trkpt lat="37.820460" lon="-120.293740">
        <ele>511.539</ele>
        <time>2018-12-28T17:52:00Z</time>
      </trkpt>
      <trkpt lat="37.820570" lon="-120.293680">
        <ele>512.524</ele>
        <time>2018-12-28T17:52:20Z</time>
      </trkpt>
      <trkpt lat="37.820640" lon="-120.293630">
        <ele>513.363</ele>
        <time>2018-12-28T17:52:40Z</time>
      </trkpt>
      <trkpt lat="37.820690" lon="-120.293580">
        <ele>513.917</ele>
        <time>2018-12-28T17:53:00Z</time>
      </trkpt>
      <trkpt lat="37.820730" lon="-120.293540">
        <ele>514.773</ele>
        <time>2018-12-28T17:53:20Z</time>
      </trkpt>
      <trkpt lat="37.820750" lon="-120.293490">
        <ele>514.530</ele>
        <time>2018-12-28T17:53:40Z</time>
      </trkpt>
      <trkpt lat="37.820770" lon="-120.293450">
        <ele>514.874</ele>
        <time>2018-12-28T17:54:00Z</time>
      </trkpt>
      <trkpt lat="37.820790" lon="-120.293400">
        <ele>515.413</ele>
        <time>2018-12-28T17:54:20Z</time>
      </trkpt>
      <trkpt lat="37.820800" lon="-120.293350">
        <ele>515.743</ele>
        <time>2018-12-28T17:54:40Z</time>
      </trkpt>
      <trkpt lat="37.820810" lon="-120.293290">
        <ele>516.007</ele>
        <time>2018-12-28T17:55:00Z</time>
      </trkpt>
      <trkpt lat="37.820820" lon="-120.293160">
        <ele>516.308</ele>
        <time>2018-12-28T17:55:20Z</time>
      </trkpt>
      <trkpt lat="37.820840" lon="-120.293040">
        <ele>516.954</ele>
        <time>2018-12-28T17:55:40Z</time>
      </trkpt>
      <trkpt lat="37.820860" lon="-120.292940">
        <ele>517.532</ele>
        <time>2018-12-28T17:56:00Z</time>
      </trkpt>
      <trkpt lat="37.820890" lon="-120.292830">
        <ele>517.137</ele>
        <time>2018-12-28T17:56:20Z</time>
      </trkpt>
      <trkpt lat="37.820930" lon="-120.292730">
        <ele>516.886</ele>
        <time>2018-12-28T17:56:40Z</time>
      </trkpt>
      <trkpt lat="37.820980" lon="-120.292610">
        <ele>516.760</ele>
        <time>2018-12-28T17:57:00Z</time>
      </trkpt>
      <trkpt lat="37.821040" lon="-120.292500">
        <ele>518.666</ele>
        <time>2018-12-28T17:57:20Z</time>
      </trkpt>
      <trkpt lat="37.821090" lon="-120.292410">
        <ele>519.623</ele>
        <time>2018-12-28T17:57:40Z</time>
      </trkpt>
      <trkpt lat="37.821140" lon="-120.292340">
        <ele>520.437</ele>
        <time>2018-12-28T17:58:00Z</time>
      </trkpt>
      <trkpt lat="37.821240" lon="-120.292220">
        <ele>521.794</ele>
        <time>2018-12-28T17:58:20Z</time>
      </trkpt>
      <trkpt lat="37.821270" lon="-120.292170">
        <ele>521.757</ele>
        <time>2018-12-28T17:58:40Z</time>
      </trkpt>
      <trkpt lat="37.821300" lon="-120.292120">
        <ele>521.522</ele>
        <time>2018-12-28T17:59:00Z</time>
      </trkpt>
      <trkpt lat="37.821310" lon="-120.292080">
        <ele>520.908</ele>
        <time>2018-12-28T17:59:20Z</time>
      </trkpt>
      <trkpt lat="37.821320" lon="-120.292030">
        <ele>521.472</ele>
        <time>2018-12-28T17:59:40Z</time>
      </trkpt>
      <trkpt lat="37.821330" lon="-120.291980">
        <ele>522.040</ele>
        <time>2018-12-28T18:00:00Z</time>
      </trkpt>
      <trkpt lat="37.821320" lon="-120.291920">
        <ele>522.145</ele>
        <time>2018-12-28T18:00:20Z</time>
      </trkpt>
      <trkpt lat="37.821310" lon="-120.291860">
        <ele>522.254</ele>
        <time>2018-12-28T18:00:40Z</time>
      </trkpt>
      <trkpt lat="37.821290" lon="-120.291770">
        <ele>522.498</ele>
        <time>2018-12-28T18:01:00Z</time>
      </trkpt>
      <trkpt lat="37.821240" lon="-120.291620">
        <ele>521.724</ele>
        <time>2018-12-28T18:01:20Z</time>
      </trkpt>
      <trkpt lat="37.821180" lon="-120.291470">
        <ele>522.681</ele>
        <time>2018-12-28T18:01:40Z</time>
      </trkpt>
      <trkpt lat="37.821140" lon="-120.291390">
        <ele>524.245</ele>
        <time>2018-12-28T18:02:00Z</time>
      </trkpt>
      <trkpt lat="37.821120" lon="-120.291360">
        <ele>524.799</ele>
        <time>2018-12-28T18:02:20Z</time>
      </trkpt>
      <trkpt lat="37.821090" lon="-120.291320">
        <ele>525.207</ele>
        <time>2018-12-28T18:02:40Z</time>
      </trkpt>
      <trkpt lat="37.821060" lon="-120.291290">
        <ele>525.427</ele>
        <time>2018-12-28T18:03:00Z</time>
      </trkpt>
      <trkpt lat="37.821030" lon="-120.291270">
        <ele>525.308</ele>
        <time>2018-12-28T18:03:20Z</time>
      </trkpt>
      <trkpt lat="37.820990" lon="-120.291250">
        <ele>524.842</ele>
        <time>2018-12-28T18:03:40Z</time>
      </trkpt>
      <trkpt lat="37.820960" lon="-120.291240">
        <ele>524.980</ele>
        <time>2018-12-28T18:04:00Z</time>
      </trkpt>
      <trkpt lat="37.820930" lon="-120.291230">
        <ele>525.635</ele>
        <time>2018-12-28T18:04:20Z</time>
      </trkpt>
      <trkpt lat="37.820880" lon="-120.291220">
        <ele>526.444</ele>
        <time>2018-12-28T18:04:40Z</time>
      </trkpt>
      <trkpt lat="37.820670" lon="-120.291210">
        <ele>528.238</ele>
        <time>2018-12-28T18:05:00Z</time>
      </trkpt>
      <trkpt lat="37.820480" lon="-120.291190">
        <ele>529.694</ele>
        <time>2018-12-28T18:05:20Z</time>
      </trkpt>
      <trkpt lat="37.820390" lon="-120.291180">
        <ele>530.361</ele>
        <time>2018-12-28T18:05:40Z</time>
      </trkpt>
      <trkpt lat="37.820330" lon="-120.291190">
        <ele>530.165</ele>
        <time>2018-12-28T18:06:00Z</time>
      </trkpt>
      <trkpt lat="37.820280" lon="-120.291200">
        <ele>530.093</ele>
        <time>2018-12-28T18:06:20Z</time>
      </trkpt>
      <trkpt lat="37.820220" lon="-120.291230">
        <ele>529.265</ele>
        <time>2018-12-28T18:06:40Z</time>
      </trkpt>
      <trkpt lat="37.820160" lon="-120.291260">
        <ele>528.521</ele>
        <time>2018-12-28T18:07:00Z</time>
      </trkpt>
      <trkpt lat="37.820050" lon="-120.291340">
        <ele>528.508</ele>
        <time>2018-12-28T18:07:20Z</time>
      </trkpt>
      <trkpt lat="37.819990" lon="-120.291370">
        <ele>529.292</ele>
        <time>2018-12-28T18:07:40Z</time>
      </trkpt>
      <trkpt lat="37.819940" lon="-120.291390">
        <ele>530.090</ele>
        <time>2018-12-28T18:08:00Z</time>
      </trkpt>
      <trkpt lat="37.819910" lon="-120.291390">
        <ele>530.885</ele>
        <time>2018-12-28T18:08:20Z</time>
      </trkpt>
      <trkpt lat="37.819860" lon="-120.291400">
        <ele>531.894</ele>
        <time>2018-12-28T18:08:40Z</time>
      </trkpt>
      <trkpt lat="37.819820" lon="-120.291390">
        <ele>531.318</ele>
        <time>2018-12-28T18:09:00Z</time>
      </trkpt>
      <trkpt lat="37.819780" lon="-120.291380">
        <ele>530.934</ele>
        <time>2018-12-28T18:09:20Z</time>
      </trkpt>
      <trkpt lat="37.819740" lon="-120.291360">
        <ele>530.831</ele>
        <time>2018-12-28T18:09:40Z</time>
      </trkpt>
      <trkpt lat="37.819710" lon="-120.291340">
        <ele>531.025</ele>
        <time>2018-12-28T18:10:00Z</time>
      </trkpt>
      <trkpt lat="37.819680" lon="-120.291310">
        <ele>531.511</ele>
        <time>2018-12-28T18:10:20Z</time>
      </trkpt>
      <trkpt lat="37.819640" lon="-120.291260">
        <ele>532.721</ele>
        <time>2018-12-28T18:10:40Z</time>
      </trkpt>
      <trkpt lat="37.819620" lon="-120.291220">
        <ele>532.903</ele>
        <time>2018-12-28T18:11:00Z</time>
      </trkpt>
      <trkpt lat="37.819590" lon="-120.291170">
        <ele>532.508</ele>
        <time>2018-12-28T18:11:20Z</time>
      </trkpt>
      <trkpt lat="37.819570" lon="-120.291120">
        <ele>532.044</ele>
        <time>2018-12-28T18:11:40Z</time>
      </trkpt>
      <trkpt lat="37.819560" lon="-120.291060">
        <ele>531.732</ele>
        <time>2018-12-28T18:12:00Z</time>
      </trkpt>
      <trkpt lat="37.819540" lon="-120.290980">
        <ele>531.237</ele>
        <time>2018-12-28T18:12:20Z</time>
      </trkpt>
      <trkpt lat="37.819530" lon="-120.290850">
        <ele>532.126</ele>
        <time>2018-12-28T18:12:40Z</time>
      </trkpt>
      <trkpt lat="37.819510" lon="-120.290570">
        <ele>534.780</ele>
        <time>2018-12-28T18:13:00Z</time>
      </trkpt>
      <trkpt lat="37.819490" lon="-120.290340">
        <ele>536.996</ele>
        <time>2018-12-28T18:13:20Z</time>
      </trkpt>
      <trkpt lat="37.819480" lon="-120.290210">
        <ele>537.643</ele>
        <time>2018-12-28T18:13:40Z</time>
      </trkpt>
      <trkpt lat="37.819480" lon="-120.290140">
        <ele>538.277</ele>
        <time>2018-12-28T18:14:00Z</time>
      </trkpt>
      <trkpt lat="37.819480" lon="-120.290070">
        <ele>537.281</ele>
        <time>2018-12-28T18:14:20Z</time>
      </trkpt>
      <trkpt lat="37.819500" lon="-120.289990">
        <ele>536.961</ele>
        <time>2018-12-28T18:14:40Z</time>
      </trkpt>
      <trkpt lat="37.819520" lon="-120.289940">
        <ele>537.017</ele>
        <time>2018-12-28T18:15:00Z</time>
      </trkpt>
      <trkpt lat="37.819550" lon="-120.289880">
        <ele>537.308</ele>
        <time>2018-12-28T18:15:20Z</time>
      </trkpt>
      <trkpt lat="37.819580" lon="-120.289840">
        <ele>537.841</ele>
        <time>2018-12-28T18:15:40Z</time>
      </trkpt>
      <trkpt lat="37.819630" lon="-120.289800">
        <ele>538.089</ele>
        <time>2018-12-28T18:16:00Z</time>
      </trkpt>
      <trkpt lat="37.819670" lon="-120.289780">
        <ele>538.124</ele>
        <time>2018-12-28T18:16:20Z</time>
      </trkpt>
      <trkpt lat="37.819720" lon="-120.289770">
        <ele>538.443</ele>
        <time>2018-12-28T18:16:40Z</time>
      </trkpt>
      <trkpt lat="37.819770" lon="-120.289770">
        <ele>538.987</ele>
        <time>2018-12-28T18:17:00Z</time>
      </trkpt>
      <trkpt lat="37.819830" lon="-120.289780">
        <ele>539.853</ele>
        <time>2018-12-28T18:17:20Z</time>
      </trkpt>
      <trkpt lat="37.819890" lon="-120.289800">
        <ele>540.750</ele>
        <time>2018-12-28T18:17:40Z</time>
      </trkpt>
      <trkpt lat="37.819940" lon="-120.289810">
        <ele>540.924</ele>
        <time>2018-12-28T18:18:00Z</time>
      </trkpt>
      <trkpt lat="37.819990" lon="-120.289820">
        <ele>541.239</ele>
        <time>2018-12-28T18:18:20Z</time>
      </trkpt>
      <trkpt lat="37.820040" lon="-120.289820">
        <ele>541.101</ele>
        <time>2018-12-28T18:18:40Z</time>
      </trkpt>
      <trkpt lat="37.820080" lon="-120.289820">
        <ele>541.121</ele>
        <time>2018-12-28T18:19:00Z</time>
      </trkpt>
      <trkpt lat="37.820120" lon="-120.289810">
        <ele>540.808</ele>
        <time>2018-12-28T18:19:20Z</time>
      </trkpt>
      <trkpt lat="37.820150" lon="-120.289800">
        <ele>541.166</ele>
        <time>2018-12-28T18:19:40Z</time>
      </trkpt>
      <trkpt lat="37.820190" lon="-120.289770">
        <ele>542.034</ele>
        <time>2018-12-28T18:20:00Z</time>
      </trkpt>
      <trkpt lat="37.820230" lon="-120.289750">
        <ele>543.099</ele>
        <time>2018-12-28T18:20:20Z</time>
      </trkpt>
      <trkpt lat="37.820370" lon="-120.289620">
        <ele>543.818</ele>
        <time>2018-12-28T18:20:40Z</time>
      </trkpt>
      <trkpt lat="37.820590" lon="-120.289410">
        <ele>546.062</ele>
        <time>2018-12-28T18:21:00Z</time>
      </trkpt>
      <trkpt lat="37.820830" lon="-120.289190">
        <ele>547.318</ele>
        <time>2018-12-28T18:21:20Z</time>
      </trkpt>
      <trkpt lat="37.820920" lon="-120.289100">
        <ele>547.915</ele>
        <time>2018-12-28T18:21:40Z</time>
      </trkpt>
      <trkpt lat="37.820990" lon="-120.289030">
        <ele>548.239</ele>
        <time>2018-12-28T18:22:00Z</time>
      </trkpt>
      <trkpt lat="37.821030" lon="-120.288980">
        <ele>548.459</ele>
        <time>2018-12-28T18:22:20Z</time>
      </trkpt>
      <trkpt lat="37.821060" lon="-120.288940">
        <ele>548.503</ele>
        <time>2018-12-28T18:22:40Z</time>
      </trkpt>
      <trkpt lat="37.821090" lon="-120.288890">
        <ele>548.223</ele>
        <time>2018-12-28T18:23:00Z</time>
      </trkpt>
      <trkpt lat="37.821110" lon="-120.288830">
        <ele>547.308</ele>
        <time>2018-12-28T18:23:20Z</time>
      </trkpt>
      <trkpt lat="37.821130" lon="-120.288790">
        <ele>546.948</ele>
        <time>2018-12-28T18:23:40Z</time>
      </trkpt>
      <trkpt lat="37.821140" lon="-120.288740">
        <ele>546.556</ele>
        <time>2018-12-28T18:24:00Z</time>
      </trkpt>
      <trkpt lat="37.821150" lon="-120.288690">
        <ele>548.251</ele>
        <time>2018-12-28T18:24:20Z</time>
      </trkpt>
      <trkpt lat="37.821150" lon="-120.288650">
        <ele>549.480</ele>
        <time>2018-12-28T18:24:40Z</time>
      </trkpt>
      <trkpt lat="37.821140" lon="-120.288520">
        <ele>552.824</ele>
        <time>2018-12-28T18:25:00Z</time>
      </trkpt>
      <trkpt lat="37.821140" lon="-120.288470">
        <ele>554.240</ele>
        <time>2018-12-28T18:25:20Z</time>
      </trkpt>
      <trkpt lat="37.821150" lon="-120.288420">
        <ele>553.737</ele>
        <time>2018-12-28T18:25:40Z</time>
      </trkpt>
      <trkpt lat="37.821150" lon="-120.288390">
        <ele>553.221</ele>
        <time>2018-12-28T18:26:00Z</time>
      </trkpt>
      <trkpt lat="37.821160" lon="-120.288360">
        <ele>553.018</ele>
        <time>2018-12-28T18:26:20Z</time>
      </trkpt>
      <trkpt lat="37.821170" lon="-120.288320">
        <ele>552.698</ele>
        <time>2018-12-28T18:26:40Z</time>
      </trkpt>
      <trkpt lat="37.821180" lon="-120.288290">
        <ele>552.417</ele>
        <time>2018-12-28T18:27:00Z</time>
      </trkpt>
      <trkpt lat="37.821210" lon="-120.288230">
        <ele>552.208</ele>
        <time>2018-12-28T18:27:20Z</time>
      </trkpt>
      <trkpt lat="37.821240" lon="-120.288190">
        <ele>552.344</ele>
        <time>2018-12-28T18:27:40Z</time>
      </trkpt>
      <trkpt lat="37.821270" lon="-120.288150">
        <ele>552.962</ele>
        <time>2018-12-28T18:28:00Z</time>
      </trkpt>
      <trkpt lat="37.821360" lon="-120.288060">
        <ele>555.077</ele>
        <time>2018-12-28T18:28:20Z</time>
      </trkpt>
      <trkpt lat="37.821420" lon="-120.288000">
        <ele>555.416</ele>
        <time>2018-12-28T18:28:40Z</time>
      </trkpt>
      <trkpt lat="37.821450" lon="-120.287960">
        <ele>554.980</ele>
        <time>2018-12-28T18:29:00Z</time>
      </trkpt>
      <trkpt lat="37.821470" lon="-120.287930">
        <ele>554.316</ele>
        <time>2018-12-28T18:29:20Z</time>
      </trkpt>
      <trkpt lat="37.821480" lon="-120.287900">
        <ele>554.093</ele>
        <time>2018-12-28T18:29:40Z</time>
      </trkpt>
      <trkpt lat="37.821500" lon="-120.287850">
        <ele>554.657</ele>
        <time>2018-12-28T18:30:00Z</time>
      </trkpt>
      <trkpt lat="37.821510" lon="-120.287820">
        <ele>554.938</ele>
        <time>2018-12-28T18:30:20Z</time>
      </trkpt>
      <trkpt lat="37.821520" lon="-120.287780">
        <ele>555.470</ele>
        <time>2018-12-28T18:30:40Z</time>
      </trkpt>
      <trkpt lat="37.821520" lon="-120.287740">
        <ele>555.517</ele>
        <time>2018-12-28T18:31:00Z</time>
      </trkpt>
      <trkpt lat="37.821520" lon="-120.287690">
        <ele>555.608</ele>
        <time>2018-12-28T18:31:20Z</time>
      </trkpt>
      <trkpt lat="37.821520" lon="-120.287650">
        <ele>555.736</ele>
        <time>2018-12-28T18:31:40Z</time>
      </trkpt>
      <trkpt lat="37.821520" lon="-120.287620">
        <ele>556.444</ele>
        <time>2018-12-28T18:32:00Z</time>
      </trkpt>
      <trkpt lat="37.821500" lon="-120.287570">
        <ele>557.069</ele>
        <time>2018-12-28T18:32:20Z</time>
      </trkpt>
      <trkpt lat="37.821490" lon="-120.287530">
        <ele>557.838</ele>
        <time>2018-12-28T18:32:40Z</time>
      </trkpt>
      <trkpt lat="37.821480" lon="-120.287500">
        <ele>558.482</ele>
        <time>2018-12-28T18:33:00Z</time>
      </trkpt>
      <trkpt lat="37.821460" lon="-120.287460">
        <ele>558.868</ele>
        <time>2018-12-28T18:33:20Z</time>
      </trkpt>
      <trkpt lat="37.821410" lon="-120.287380">
        <ele>559.515</ele>
        <time>2018-12-28T18:33:40Z</time>
      </trkpt>
      <trkpt lat="37.821380" lon="-120.287320">
        <ele>559.919</ele>
        <time>2018-12-28T18:34:00Z</time>
      </trkpt>
      <trkpt lat="37.821350" lon="-120.287230">
        <ele>560.695</ele>
        <time>2018-12-28T18:34:20Z</time>
      </trkpt>
      <trkpt lat="37.821290" lon="-120.287040">
        <ele>560.749</ele>
        <time>2018-12-28T18:34:40Z</time>
      </trkpt>
      <trkpt lat="37.821250" lon="-120.286900">
        <ele>558.923</ele>
        <time>2018-12-28T18:35:00Z</time>
      </trkpt>
      <trkpt lat="37.821220" lon="-120.286790">
        <ele>558.108</ele>
        <time>2018-12-28T18:35:20Z</time>
      </trkpt>
      <trkpt lat="37.821200" lon="-120.286710">
        <ele>558.292</ele>
        <time>2018-12-28T18:35:40Z</time>
      </trkpt>
      <trkpt lat="37.821200" lon="-120.286630">
        <ele>559.120</ele>
        <time>2018-12-28T18:36:00Z</time>
      </trkpt>
      <trkpt lat="37.821200" lon="-120.286580">
        <ele>559.635</ele>
        <time>2018-12-28T18:36:20Z</time>
      </trkpt>
      <trkpt lat="37.821200" lon="-120.286510">
        <ele>560.284</ele>
        <time>2018-12-28T18:36:40Z</time>
      </trkpt>
      <trkpt lat="37.821210" lon="-120.286450">
        <ele>560.548</ele>
        <time>2018-12-28T18:37:00Z</time>
      </trkpt>
      <trkpt lat="37.821240" lon="-120.286370">
        <ele>561.814</ele>
        <time>2018-12-28T18:37:20Z</time>
      </trkpt>
      <trkpt lat="37.821310" lon="-120.286180">
        <ele>563.291</ele>
        <time>2018-12-28T18:37:40Z</time>
      </trkpt>
      <trkpt lat="37.821400" lon="-120.285950">
        <ele>564.745</ele>
        <time>2018-12-28T18:38:00Z</time>
      </trkpt>
      <trkpt lat="37.821470" lon="-120.285770">
        <ele>564.114</ele>
        <time>2018-12-28T18:38:20Z</time>
      </trkpt>
      <trkpt lat="37.821510" lon="-120.285670">
        <ele>564.254</ele>
        <time>2018-12-28T18:38:40Z</time>
      </trkpt>
      <trkpt lat="37.821560" lon="-120.285560">
        <ele>567.009</ele>
        <time>2018-12-28T18:39:00Z</time>
      </trkpt>
      <trkpt lat="37.821600" lon="-120.285470">
        <ele>568.808</ele>
        <time>2018-12-28T18:39:20Z</time>
      </trkpt>
      <trkpt lat="37.821660" lon="-120.285380">
        <ele>570.144</ele>
        <time>2018-12-28T18:39:40Z</time>
      </trkpt>
      <trkpt lat="37.821730" lon="-120.285270">
        <ele>569.862</ele>
        <time>2018-12-28T18:40:00Z</time>
      </trkpt>
      <trkpt lat="37.821760" lon="-120.285220">
        <ele>569.627</ele>
        <time>2018-12-28T18:40:20Z</time>
      </trkpt>
      <trkpt lat="37.821780" lon="-120.285180">
        <ele>569.256</ele>
        <time>2018-12-28T18:40:40Z</time>
      </trkpt>
      <trkpt lat="37.821790" lon="-120.285140">
        <ele>568.330</ele>
        <time>2018-12-28T18:41:00Z</time>
      </trkpt>
      <trkpt lat="37.821800" lon="-120.285110">
        <ele>568.956</ele>
        <time>2018-12-28T18:41:20Z</time>
      </trkpt>
      <trkpt lat="37.821800" lon="-120.285070">
        <ele>569.023</ele>
        <time>2018-12-28T18:41:40Z</time>
      </trkpt>
      <trkpt lat="37.821800" lon="-120.285030">
        <ele>569.277</ele>
        <time>2018-12-28T18:42:00Z</time>
      </trkpt>
      <trkpt lat="37.821800" lon="-120.284990">
        <ele>569.314</ele>
        <time>2018-12-28T18:42:20Z</time>
      </trkpt>
      <trkpt lat="37.821800" lon="-120.284960">
        <ele>569.454</ele>
        <time>2018-12-28T18:42:40Z</time>
      </trkpt>
      <trkpt lat="37.821790" lon="-120.284920">
        <ele>569.209</ele>
        <time>2018-12-28T18:43:00Z</time>
      </trkpt>
      <trkpt lat="37.821770" lon="-120.284870">
        <ele>568.608</ele>
        <time>2018-12-28T18:43:20Z</time>
      </trkpt>
      <trkpt lat="37.821750" lon="-120.284820">
        <ele>569.814</ele>
        <time>2018-12-28T18:43:40Z</time>
      </trkpt>
      <trkpt lat="37.821700" lon="-120.284710">
        <ele>572.872</ele>
        <time>2018-12-28T18:44:00Z</time>
      </trkpt>
      <trkpt lat="37.821640" lon="-120.284580">
        <ele>575.717</ele>
        <time>2018-12-28T18:44:20Z</time>
      </trkpt>
      <trkpt lat="37.821610" lon="-120.284510">
        <ele>574.746</ele>
        <time>2018-12-28T18:44:40Z</time>
      </trkpt>
      <trkpt lat="37.821550" lon="-120.284430">
        <ele>572.490</ele>
        <time>2018-12-28T18:45:00Z</time>
      </trkpt>
      <trkpt lat="37.821470" lon="-120.284330">
        <ele>570.946</ele>
        <time>2018-12-28T18:45:20Z</time>
      </trkpt>
      <trkpt lat="37.821390" lon="-120.284230">
        <ele>572.483</ele>
        <time>2018-12-28T18:45:40Z</time>
      </trkpt>
      <trkpt lat="37.821320" lon="-120.284150">
        <ele>573.057</ele>
        <time>2018-12-28T18:46:00Z</time>
      </trkpt>
      <trkpt lat="37.821280" lon="-120.284090">
        <ele>573.296</ele>
        <time>2018-12-28T18:46:20Z</time>
      </trkpt>
      <trkpt lat="37.821250" lon="-120.284030">
        <ele>573.431</ele>
        <time>2018-12-28T18:46:40Z</time>
      </trkpt>
      <trkpt lat="37.821220" lon="-120.283950">
        <ele>573.624</ele>
        <time>2018-12-28T18:47:00Z</time>
      </trkpt>
      <trkpt lat="37.821210" lon="-120.283880">
        <ele>574.608</ele>
        <time>2018-12-28T18:47:20Z</time>
      </trkpt>
      <trkpt lat="37.821190" lon="-120.283800">
        <ele>575.392</ele>
        <time>2018-12-28T18:47:40Z</time>
      </trkpt>
      <trkpt lat="37.821180" lon="-120.283720">
        <ele>575.960</ele>
        <time>2018-12-28T18:48:00Z</time>
      </trkpt>
      <trkpt lat="37.821170" lon="-120.283630">
        <ele>575.565</ele>
        <time>2018-12-28T18:48:20Z</time>
      </trkpt>
      <trkpt lat="37.821180" lon="-120.283530">
        <ele>576.024</ele>
        <time>2018-12-28T18:48:40Z</time>
      </trkpt>
      <trkpt lat="37.821200" lon="-120.283410">
        <ele>576.538</ele>
        <time>2018-12-28T18:49:00Z</time>
      </trkpt>
      <trkpt lat="37.821240" lon="-120.283220">
        <ele>577.114</ele>
        <time>2018-12-28T18:49:20Z</time>
      </trkpt>
      <trkpt lat="37.821300" lon="-120.283040">
        <ele>579.871</ele>
        <time>2018-12-28T18:49:40Z</time>
      </trkpt>
      <trkpt lat="37.821340" lon="-120.282930">
        <ele>581.265</ele>
        <time>2018-12-28T18:50:00Z</time>
      </trkpt>
      <trkpt lat="37.821370" lon="-120.282870">
        <ele>581.327</ele>
        <time>2018-12-28T18:50:20Z</time>
      </trkpt>
      <trkpt lat="37.821400" lon="-120.282830">
        <ele>581.668</ele>
        <time>2018-12-28T18:50:40Z</time>
      </trkpt>
      <trkpt lat="37.821430" lon="-120.282790">
        <ele>581.814</ele>
        <time>2018-12-28T18:51:00Z</time>
      </trkpt>
      <trkpt lat="37.821460" lon="-120.282770">
        <ele>582.608</ele>
        <time>2018-12-28T18:51:20Z</time>
      </trkpt>
      <trkpt lat="37.821500" lon="-120.282760">
        <ele>584.195</ele>
        <time>2018-12-28T18:51:40Z</time>
      </trkpt>
      <trkpt lat="37.821550" lon="-120.282750">
        <ele>584.583</ele>
        <time>2018-12-28T18:52:00Z</time>
      </trkpt>
      <trkpt lat="37.821580" lon="-120.282750">
        <ele>583.788</ele>
        <time>2018-12-28T18:52:20Z</time>
      </trkpt>
      <trkpt lat="37.821600" lon="-120.282750">
        <ele>583.267</ele>
        <time>2018-12-28T18:52:40Z</time>
      </trkpt>
      <trkpt lat="37.821630" lon="-120.282750">
        <ele>582.521</ele>
        <time>2018-12-28T18:53:00Z</time>
      </trkpt>
      <trkpt lat="37.821660" lon="-120.282770">
        <ele>582.417</ele>
        <time>2018-12-28T18:53:20Z</time>
      </trkpt>
      <trkpt lat="37.821690" lon="-120.282790">
        <ele>582.384</ele>
        <time>2018-12-28T18:53:40Z</time>
      </trkpt>
      <trkpt lat="37.821720" lon="-120.282810">
        <ele>582.178</ele>
        <time>2018-12-28T18:54:00Z</time>
      </trkpt>
      <trkpt lat="37.821750" lon="-120.282850">
        <ele>582.669</ele>
        <time>2018-12-28T18:54:20Z</time>
      </trkpt>
      <trkpt lat="37.821810" lon="-120.282930">
        <ele>583.404</ele>
        <time>2018-12-28T18:54:40Z</time>
      </trkpt>
      <trkpt lat="37.821940" lon="-120.283090">
        <ele>584.424</ele>
        <time>2018-12-28T18:55:00Z</time>
      </trkpt>
      <trkpt lat="37.822050" lon="-120.283230">
        <ele>586.808</ele>
        <time>2018-12-28T18:55:20Z</time>
      </trkpt>
      <trkpt lat="37.822120" lon="-120.283330">
        <ele>586.589</ele>
        <time>2018-12-28T18:55:40Z</time>
      </trkpt>
      <trkpt lat="37.822180" lon="-120.283390">
        <ele>586.527</ele>
        <time>2018-12-28T18:56:00Z</time>
      </trkpt>
      <trkpt lat="37.822230" lon="-120.283440">
        <ele>587.452</ele>
        <time>2018-12-28T18:56:20Z</time>
      </trkpt>
      <trkpt lat="37.822270" lon="-120.283470">
        <ele>588.261</ele>
        <time>2018-12-28T18:56:40Z</time>
      </trkpt>
      <trkpt lat="37.822300" lon="-120.283490">
        <ele>589.125</ele>
        <time>2018-12-28T18:57:00Z</time>
      </trkpt>
      <trkpt lat="37.822340" lon="-120.283510">
        <ele>589.931</ele>
        <time>2018-12-28T18:57:20Z</time>
      </trkpt>
      <trkpt lat="37.822390" lon="-120.283520">
        <ele>590.568</ele>
        <time>2018-12-28T18:57:40Z</time>
      </trkpt>
      <trkpt lat="37.822440" lon="-120.283520">
        <ele>590.822</ele>
        <time>2018-12-28T18:58:00Z</time>
      </trkpt>
      <trkpt lat="37.822490" lon="-120.283520">
        <ele>591.192</ele>
        <time>2018-12-28T18:58:20Z</time>
      </trkpt>
      <trkpt lat="37.822540" lon="-120.283510">
        <ele>590.873</ele>
        <time>2018-12-28T18:58:40Z</time>
      </trkpt>
      <trkpt lat="37.822740" lon="-120.283480">
        <ele>589.920</ele>
        <time>2018-12-28T18:59:00Z</time>
      </trkpt>
      <trkpt lat="37.822830" lon="-120.283470">
        <ele>589.708</ele>
        <time>2018-12-28T18:59:20Z</time>
      </trkpt>
      <trkpt lat="37.822930" lon="-120.283470">
        <ele>590.342</ele>
        <time>2018-12-28T18:59:40Z</time>
      </trkpt>
      <trkpt lat="37.823010" lon="-120.283470">
        <ele>590.750</ele>
        <time>2018-12-28T19:00:00Z</time>
      </trkpt>
      <trkpt lat="37.823080" lon="-120.283480">
        <ele>591.825</ele>
        <time>2018-12-28T19:00:20Z</time>
      </trkpt>
      <trkpt lat="37.823120" lon="-120.283490">
        <ele>592.744</ele>
        <time>2018-12-28T19:00:40Z</time>
      </trkpt>
      <trkpt lat="37.823190" lon="-120.283510">
        <ele>594.528</ele>
        <time>2018-12-28T19:01:00Z</time>
      </trkpt>
      <trkpt lat="37.823300" lon="-120.283520">
        <ele>595.724</ele>
        <time>2018-12-28T19:01:20Z</time>
      </trkpt>
      <trkpt lat="37.823390" lon="-120.283520">
        <ele>596.161</ele>
        <time>2018-12-28T19:01:40Z</time>
      </trkpt>
      <trkpt lat="37.823470" lon="-120.283530">
        <ele>597.175</ele>
        <time>2018-12-28T19:02:00Z</time>
      </trkpt>
      <trkpt lat="37.823530" lon="-120.283540">
        <ele>596.061</ele>
        <time>2018-12-28T19:02:20Z</time>
      </trkpt>
      <trkpt lat="37.823570" lon="-120.283560">
        <ele>595.721</ele>
        <time>2018-12-28T19:02:40Z</time>
      </trkpt>
      <trkpt lat="37.823620" lon="-120.283580">
        <ele>595.013</ele>
        <time>2018-12-28T19:03:00Z</time>
      </trkpt>
      <trkpt lat="37.823660" lon="-120.283610">
        <ele>594.808</ele>
        <time>2018-12-28T19:03:20Z</time>
      </trkpt>
      <trkpt lat="37.823700" lon="-120.283640">
        <ele>594.349</ele>
        <time>2018-12-28T19:03:40Z</time>
      </trkpt>
      <trkpt lat="37.823740" lon="-120.283680">
        <ele>593.917</ele>
        <time>2018-12-28T19:04:00Z</time>
      </trkpt>
      <trkpt lat="37.823780" lon="-120.283730">
        <ele>594.222</ele>
        <time>2018-12-28T19:04:20Z</time>
      </trkpt>
      <trkpt lat="37.823840" lon="-120.283830">
        <ele>597.761</ele>
        <time>2018-12-28T19:04:40Z</time>
      </trkpt>
      <trkpt lat="37.823920" lon="-120.283970">
        <ele>601.835</ele>
        <time>2018-12-28T19:05:00Z</time>
      </trkpt>
      <trkpt lat="37.824000" lon="-120.284120">
        <ele>601.431</ele>
        <time>2018-12-28T19:05:20Z</time>
      </trkpt>
      <trkpt lat="37.824110" lon="-120.284300">
        <ele>599.328</ele>
        <time>2018-12-28T19:05:40Z</time>
      </trkpt>
      <trkpt lat="37.824220" lon="-120.284470">
        <ele>602.672</ele>
        <time>2018-12-28T19:06:00Z</time>
      </trkpt>
      <trkpt lat="37.824270" lon="-120.284560">
        <ele>603.423</ele>
        <time>2018-12-28T19:06:20Z</time>
      </trkpt>
      <trkpt lat="37.824320" lon="-120.284630">
        <ele>603.083</ele>
        <time>2018-12-28T19:06:40Z</time>
      </trkpt>
      <trkpt lat="37.824350" lon="-120.284670">
        <ele>603.611</ele>
        <time>2018-12-28T19:07:00Z</time>
      </trkpt>
      <trkpt lat="37.824380" lon="-120.284700">
        <ele>604.008</ele>
        <time>2018-12-28T19:07:20Z</time>
      </trkpt>
      <trkpt lat="37.824400" lon="-120.284720">
        <ele>604.395</ele>
        <time>2018-12-28T19:07:40Z</time>
      </trkpt>
      <trkpt lat="37.824430" lon="-120.284740">
        <ele>604.513</ele>
        <time>2018-12-28T19:08:00Z</time>
      </trkpt>
      <trkpt lat="37.824450" lon="-120.284750">
        <ele>604.528</ele>
        <time>2018-12-28T19:08:20Z</time>
      </trkpt>
      <trkpt lat="37.824500" lon="-120.284770">
        <ele>604.637</ele>
        <time>2018-12-28T19:08:40Z</time>
      </trkpt>
      <trkpt lat="37.824530" lon="-120.284770">
        <ele>604.461</ele>
        <time>2018-12-28T19:09:00Z</time>
      </trkpt>
      <trkpt lat="37.824560" lon="-120.284770">
        <ele>604.377</ele>
        <time>2018-12-28T19:09:20Z</time>
      </trkpt>
      <trkpt lat="37.824590" lon="-120.284770">
        <ele>604.334</ele>
        <time>2018-12-28T19:09:40Z</time>
      </trkpt>
      <trkpt lat="37.824620" lon="-120.284760">
        <ele>605.118</ele>
        <time>2018-12-28T19:10:00Z</time>
      </trkpt>
      <trkpt lat="37.824680" lon="-120.284730">
        <ele>606.677</ele>
        <time>2018-12-28T19:10:20Z</time>
      </trkpt>
      <trkpt lat="37.824720" lon="-120.284700">
        <ele>607.761</ele>
        <time>2018-12-28T19:10:40Z</time>
      </trkpt>
      <trkpt lat="37.824740" lon="-120.284660">
        <ele>608.027</ele>
        <time>2018-12-28T19:11:00Z</time>
      </trkpt>
      <trkpt lat="37.824770" lon="-120.284620">
        <ele>608.808</ele>
        <time>2018-12-28T19:11:20Z</time>
      </trkpt>
      <trkpt lat="37.824790" lon="-120.284560">
        <ele>609.360</ele>
        <time>2018-12-28T19:11:40Z</time>
      </trkpt>
      <trkpt lat="37.824810" lon="-120.284500">
        <ele>610.118</ele>
        <time>2018-12-28T19:12:00Z</time>
      </trkpt>
      <trkpt lat="37.824810" lon="-120.284440">
        <ele>610.223</ele>
        <time>2018-12-28T19:12:20Z</time>
      </trkpt>
      <trkpt lat="37.824810" lon="-120.284390">
        <ele>610.262</ele>
        <time>2018-12-28T19:12:40Z</time>
      </trkpt>
      <trkpt lat="37.824810" lon="-120.284330">
        <ele>610.356</ele>
        <time>2018-12-28T19:13:00Z</time>
      </trkpt>
      <trkpt lat="37.824790" lon="-120.284280">
        <ele>610.572</ele>
        <time>2018-12-28T19:13:20Z</time>
      </trkpt>
      <trkpt lat="37.824780" lon="-120.284250">
        <ele>611.339</ele>
        <time>2018-12-28T19:13:40Z</time>
      </trkpt>
      <trkpt lat="37.824750" lon="-120.284180">
        <ele>612.863</ele>
        <time>2018-12-28T19:14:00Z</time>
      </trkpt>
      <trkpt lat="37.824710" lon="-120.284100">
        <ele>614.232</ele>
        <time>2018-12-28T19:14:20Z</time>
      </trkpt>
      <trkpt lat="37.824680" lon="-120.284030">
        <ele>615.692</ele>
        <time>2018-12-28T19:14:40Z</time>
      </trkpt>
      <trkpt lat="37.824640" lon="-120.283930">
        <ele>614.711</ele>
        <time>2018-12-28T19:15:00Z</time>
      </trkpt>
      <trkpt lat="37.824600" lon="-120.283820">
        <ele>613.408</ele>
        <time>2018-12-28T19:15:20Z</time>
      </trkpt>
      <trkpt lat="37.824580" lon="-120.283730">
        <ele>612.736</ele>
        <time>2018-12-28T19:15:40Z</time>
      </trkpt>
      <trkpt lat="37.824560" lon="-120.283650">
        <ele>612.214</ele>
        <time>2018-12-28T19:16:00Z</time>
      </trkpt>
      <trkpt lat="37.824530" lon="-120.283500">
        <ele>612.069</ele>
        <time>2018-12-28T19:16:20Z</time>
      </trkpt>
      <trkpt lat="37.824500" lon="-120.283390">
        <ele>612.198</ele>
        <time>2018-12-28T19:16:40Z</time>
      </trkpt>
      <trkpt lat="37.824450" lon="-120.283260">
        <ele>612.892</ele>
        <time>2018-12-28T19:17:00Z</time>
      </trkpt>
      <trkpt lat="37.824410" lon="-120.283140">
        <ele>615.138</ele>
        <time>2018-12-28T19:17:20Z</time>
      </trkpt>
      <trkpt lat="37.824360" lon="-120.283030">
        <ele>617.055</ele>
        <time>2018-12-28T19:17:40Z</time>
      </trkpt>
      <trkpt lat="37.824300" lon="-120.282900">
        <ele>618.479</ele>
        <time>2018-12-28T19:18:00Z</time>
      </trkpt>
      <trkpt lat="37.824250" lon="-120.282790">
        <ele>620.832</ele>
        <time>2018-12-28T19:18:20Z</time>
      </trkpt>
      <trkpt lat="37.824200" lon="-120.282710">
        <ele>622.292</ele>
        <time>2018-12-28T19:18:40Z</time>
      </trkpt>
      <trkpt lat="37.824170" lon="-120.282660">
        <ele>623.311</ele>
        <time>2018-12-28T19:19:00Z</time>
      </trkpt>
      <trkpt lat="37.824140" lon="-120.282620">
        <ele>623.908</ele>
        <time>2018-12-28T19:19:20Z</time>
      </trkpt>
      <trkpt lat="37.824110" lon="-120.282580">
        <ele>624.436</ele>
        <time>2018-12-28T19:19:40Z</time>
      </trkpt>
      <trkpt lat="37.824060" lon="-120.282540">
        <ele>624.284</ele>
        <time>2018-12-28T19:20:00Z</time>
      </trkpt>
      <trkpt lat="37.824010" lon="-120.282500">
        <ele>624.299</ele>
        <time>2018-12-28T19:20:20Z</time>
      </trkpt>
      <trkpt lat="37.823940" lon="-120.282460">
        <ele>623.718</ele>
        <time>2018-12-28T19:20:40Z</time>
      </trkpt>
      <trkpt lat="37.823870" lon="-120.282420">
        <ele>623.322</ele>
        <time>2018-12-28T19:21:00Z</time>
      </trkpt>
      <trkpt lat="37.823790" lon="-120.282390">
        <ele>622.228</ele>
        <time>2018-12-28T19:21:20Z</time>
      </trkpt>
      <trkpt lat="37.823670" lon="-120.282330">
        <ele>622.885</ele>
        <time>2018-12-28T19:21:40Z</time>
      </trkpt>
      <trkpt lat="37.823600" lon="-120.282290">
        <ele>623.329</ele>
        <time>2018-12-28T19:22:00Z</time>
      </trkpt>
      <trkpt lat="37.823530" lon="-120.282250">
        <ele>623.292</ele>
        <time>2018-12-28T19:22:20Z</time>
      </trkpt>
      <trkpt lat="37.823490" lon="-120.282210">
        <ele>623.273</ele>
        <time>2018-12-28T19:22:40Z</time>
      </trkpt>
      <trkpt lat="37.823450" lon="-120.282160">
        <ele>623.220</ele>
        <time>2018-12-28T19:23:00Z</time>
      </trkpt>
      <trkpt lat="37.823420" lon="-120.282120">
        <ele>623.208</ele>
        <time>2018-12-28T19:23:20Z</time>
      </trkpt>
      <trkpt lat="37.823400" lon="-120.282070">
        <ele>623.852</ele>
        <time>2018-12-28T19:23:40Z</time>
      </trkpt>
      <trkpt lat="37.823380" lon="-120.282010">
        <ele>624.590</ele>
        <time>2018-12-28T19:24:00Z</time>
      </trkpt>
      <trkpt lat="37.823370" lon="-120.281950">
        <ele>625.355</ele>
        <time>2018-12-28T19:24:20Z</time>
      </trkpt>
      <trkpt lat="37.823350" lon="-120.281830">
        <ele>626.634</ele>
        <time>2018-12-28T19:24:40Z</time>
      </trkpt>
      <trkpt lat="37.823300" lon="-120.281460">
        <ele>629.858</ele>
        <time>2018-12-28T19:25:00Z</time>
      </trkpt>
      <trkpt lat="37.823240" lon="-120.280990">
        <ele>632.484</ele>
        <time>2018-12-28T19:25:20Z</time>
      </trkpt>
      <trkpt lat="37.823210" lon="-120.280800">
        <ele>631.471</ele>
        <time>2018-12-28T19:25:40Z</time>
      </trkpt>
      <trkpt lat="37.823180" lon="-120.280630">
        <ele>630.135</ele>
        <time>2018-12-28T19:26:00Z</time>
      </trkpt>
      <trkpt lat="37.823130" lon="-120.280410">
        <ele>629.147</ele>
        <time>2018-12-28T19:26:20Z</time>
      </trkpt>
      <trkpt lat="37.823110" lon="-120.280320">
        <ele>630.929</ele>
        <time>2018-12-28T19:26:40Z</time>
      </trkpt>
      <trkpt lat="37.823090" lon="-120.280250">
        <ele>631.921</ele>
        <time>2018-12-28T19:27:00Z</time>
      </trkpt>
      <trkpt lat="37.823080" lon="-120.280190">
        <ele>633.108</ele>
        <time>2018-12-28T19:27:20Z</time>
      </trkpt>
      <trkpt lat="37.823070" lon="-120.280130">
        <ele>633.947</ele>
        <time>2018-12-28T19:27:40Z</time>
      </trkpt>
      <trkpt lat="37.823080" lon="-120.280070">
        <ele>633.725</ele>
        <time>2018-12-28T19:28:00Z</time>
      </trkpt>
      <trkpt lat="37.823080" lon="-120.280010">
        <ele>633.070</ele>
        <time>2018-12-28T19:28:20Z</time>
      </trkpt>
      <trkpt lat="37.823100" lon="-120.279970">
        <ele>633.349</ele>
        <time>2018-12-28T19:28:40Z</time>
      </trkpt>
      <trkpt lat="37.823120" lon="-120.279930">
        <ele>633.473</ele>
        <time>2018-12-28T19:29:00Z</time>
      </trkpt>
      <trkpt lat="37.823150" lon="-120.279900">
        <ele>633.819</ele>
        <time>2018-12-28T19:29:20Z</time>
      </trkpt>
      <trkpt lat="37.823180" lon="-120.279870">
        <ele>634.076</ele>
        <time>2018-12-28T19:29:40Z</time>
      </trkpt>
      <trkpt lat="37.823210" lon="-120.279840">
        <ele>634.030</ele>
        <time>2018-12-28T19:30:00Z</time>
      </trkpt>
      <trkpt lat="37.823250" lon="-120.279820">
        <ele>634.072</ele>
        <time>2018-12-28T19:30:20Z</time>
      </trkpt>
      <trkpt lat="37.823290" lon="-120.279810">
        <ele>634.113</ele>
        <time>2018-12-28T19:30:40Z</time>
      </trkpt>
      <trkpt lat="37.823340" lon="-120.279800">
        <ele>634.214</ele>
        <time>2018-12-28T19:31:00Z</time>
      </trkpt>
      <trkpt lat="37.823390" lon="-120.279800">
        <ele>634.608</ele>
        <time>2018-12-28T19:31:20Z</time>
      </trkpt>
      <trkpt lat="37.823460" lon="-120.279820">
        <ele>635.880</ele>
        <time>2018-12-28T19:31:40Z</time>
      </trkpt>
      <trkpt lat="37.823590" lon="-120.279860">
        <ele>637.828</ele>
        <time>2018-12-28T19:32:00Z</time>
      </trkpt>
      <trkpt lat="37.823660" lon="-120.279870">
        <ele>638.613</ele>
        <time>2018-12-28T19:32:20Z</time>
      </trkpt>
      <trkpt lat="37.823720" lon="-120.279880">
        <ele>639.472</ele>
        <time>2018-12-28T19:32:40Z</time>
      </trkpt>
      <trkpt lat="37.823780" lon="-120.279880">
        <ele>639.886</ele>
        <time>2018-12-28T19:33:00Z</time>
      </trkpt>
      <trkpt lat="37.823840" lon="-120.279880">
        <ele>640.332</ele>
        <time>2018-12-28T19:33:20Z</time>
      </trkpt>
      <trkpt lat="37.823900" lon="-120.279870">
        <ele>640.129</ele>
        <time>2018-12-28T19:33:40Z</time>
      </trkpt>
      <trkpt lat="37.824000" lon="-120.279860">
        <ele>640.353</ele>
        <time>2018-12-28T19:34:00Z</time>
      </trkpt>
      <trkpt lat="37.824100" lon="-120.279820">
        <ele>641.512</ele>
        <time>2018-12-28T19:34:20Z</time>
      </trkpt>
      <trkpt lat="37.824160" lon="-120.279790">
        <ele>642.732</ele>
        <time>2018-12-28T19:34:40Z</time>
      </trkpt>
      <trkpt lat="37.824230" lon="-120.279750">
        <ele>644.105</ele>
        <time>2018-12-28T19:35:00Z</time>
      </trkpt>
      <trkpt lat="37.824300" lon="-120.279700">
        <ele>645.408</ele>
        <time>2018-12-28T19:35:20Z</time>
      </trkpt>
      <trkpt lat="37.824450" lon="-120.279580">
        <ele>646.744</ele>
        <time>2018-12-28T19:35:40Z</time>
      </trkpt>
      <trkpt lat="37.824650" lon="-120.279400">
        <ele>646.712</ele>
        <time>2018-12-28T19:36:00Z</time>
      </trkpt>
      <trkpt lat="37.824730" lon="-120.279330">
        <ele>647.017</ele>
        <time>2018-12-28T19:36:20Z</time>
      </trkpt>
      <trkpt lat="37.824770" lon="-120.279280">
        <ele>647.216</ele>
        <time>2018-12-28T19:36:40Z</time>
      </trkpt>
      <trkpt lat="37.824810" lon="-120.279220">
        <ele>647.610</ele>
        <time>2018-12-28T19:37:00Z</time>
      </trkpt>
      <trkpt lat="37.824830" lon="-120.279170">
        <ele>647.586</ele>
        <time>2018-12-28T19:37:20Z</time>
      </trkpt>
      <trkpt lat="37.824850" lon="-120.279120">
        <ele>647.463</ele>
        <time>2018-12-28T19:37:40Z</time>
      </trkpt>
      <trkpt lat="37.824860" lon="-120.279080">
        <ele>647.257</ele>
        <time>2018-12-28T19:38:00Z</time>
      </trkpt>
      <trkpt lat="37.824860" lon="-120.279030">
        <ele>646.379</ele>
        <time>2018-12-28T19:38:20Z</time>
      </trkpt>
      <trkpt lat="37.824860" lon="-120.278970">
        <ele>646.705</ele>
        <time>2018-12-28T19:38:40Z</time>
      </trkpt>
      <trkpt lat="37.824850" lon="-120.278940">
        <ele>646.625</ele>
        <time>2018-12-28T19:39:00Z</time>
      </trkpt>
      <trkpt lat="37.824840" lon="-120.278900">
        <ele>646.708</ele>
        <time>2018-12-28T19:39:20Z</time>
      </trkpt>
      <trkpt lat="37.824820" lon="-120.278870">
        <ele>646.690</ele>
        <time>2018-12-28T19:39:40Z</time>
      </trkpt>
      <trkpt lat="37.824800" lon="-120.278840">
        <ele>646.848</ele>
        <time>2018-12-28T19:40:00Z</time>
      </trkpt>
      <trkpt lat="37.824780" lon="-120.278800">
        <ele>647.453</ele>
        <time>2018-12-28T19:40:20Z</time>
      </trkpt>
      <trkpt lat="37.824740" lon="-120.278760">
        <ele>648.422</ele>
        <time>2018-12-28T19:40:40Z</time>
      </trkpt>
      <trkpt lat="37.824700" lon="-120.278740">
        <ele>649.326</ele>
        <time>2018-12-28T19:41:00Z</time>
      </trkpt>
      <trkpt lat="37.824660" lon="-120.278720">
        <ele>650.542</ele>
        <time>2018-12-28T19:41:20Z</time>
      </trkpt>
      <trkpt lat="37.824600" lon="-120.278700">
        <ele>652.099</ele>
        <time>2018-12-28T19:41:40Z</time>
      </trkpt>
      <trkpt lat="37.824520" lon="-120.278680">
        <ele>652.863</ele>
        <time>2018-12-28T19:42:00Z</time>
      </trkpt>
      <trkpt lat="37.824400" lon="-120.278650">
        <ele>653.662</ele>
        <time>2018-12-28T19:42:20Z</time>
      </trkpt>
      <trkpt lat="37.824330" lon="-120.278630">
        <ele>654.183</ele>
        <time>2018-12-28T19:42:40Z</time>
      </trkpt>
      <trkpt lat="37.824260" lon="-120.278600">
        <ele>654.111</ele>
        <time>2018-12-28T19:43:00Z</time>
      </trkpt>
      <trkpt lat="37.824210" lon="-120.278570">
        <ele>654.208</ele>
        <time>2018-12-28T19:43:20Z</time>
      </trkpt>
      <trkpt lat="37.824140" lon="-120.278520">
        <ele>654.779</ele>
        <time>2018-12-28T19:43:40Z</time>
      </trkpt>
      <trkpt lat="37.824080" lon="-120.278470">
        <ele>655.457</ele>
        <time>2018-12-28T19:44:00Z</time>
      </trkpt>
      <trkpt lat="37.824040" lon="-120.278420">
        <ele>655.542</ele>
        <time>2018-12-28T19:44:20Z</time>
      </trkpt>
      <trkpt lat="37.824000" lon="-120.278370">
        <ele>655.031</ele>
        <time>2018-12-28T19:44:40Z</time>
      </trkpt>
      <trkpt lat="37.823960" lon="-120.278300">
        <ele>654.925</ele>
        <time>2018-12-28T19:45:00Z</time>
      </trkpt>
      <trkpt lat="37.823930" lon="-120.278230">
        <ele>655.441</ele>
        <time>2018-12-28T19:45:20Z</time>
      </trkpt>
      <trkpt lat="37.823900" lon="-120.278160">
        <ele>655.878</ele>
        <time>2018-12-28T19:45:40Z</time>
      </trkpt>
      <trkpt lat="37.823880" lon="-120.278090">
        <ele>656.532</ele>
        <time>2018-12-28T19:46:00Z</time>
      </trkpt>
      <trkpt lat="37.823870" lon="-120.278030">
        <ele>657.379</ele>
        <time>2018-12-28T19:46:20Z</time>
      </trkpt>
      <trkpt lat="37.823850" lon="-120.277930">
        <ele>658.205</ele>
        <time>2018-12-28T19:46:40Z</time>
      </trkpt>
      <trkpt lat="37.823850" lon="-120.277830">
        <ele>659.325</ele>
        <time>2018-12-28T19:47:00Z</time>
      </trkpt>
      <trkpt lat="37.823840" lon="-120.277620">
        <ele>660.508</ele>
        <time>2018-12-28T19:47:20Z</time>
      </trkpt>
      <trkpt lat="37.823830" lon="-120.277490">
        <ele>661.230</ele>
        <time>2018-12-28T19:47:40Z</time>
      </trkpt>
      <trkpt lat="37.823820" lon="-120.277400">
        <ele>661.768</ele>
        <time>2018-12-28T19:48:00Z</time>
      </trkpt>
      <trkpt lat="37.823810" lon="-120.277330">
        <ele>661.853</ele>
        <time>2018-12-28T19:48:20Z</time>
      </trkpt>
      <trkpt lat="37.823800" lon="-120.277280">
        <ele>661.892</ele>
        <time>2018-12-28T19:48:40Z</time>
      </trkpt>
      <trkpt lat="37.823780" lon="-120.277240">
        <ele>661.366</ele>
        <time>2018-12-28T19:49:00Z</time>
      </trkpt>
      <trkpt lat="37.823760" lon="-120.277200">
        <ele>660.932</ele>
        <time>2018-12-28T19:49:20Z</time>
      </trkpt>
      <trkpt lat="37.823740" lon="-120.277160">
        <ele>660.889</ele>
        <time>2018-12-28T19:49:40Z</time>
      </trkpt>
      <trkpt lat="37.823710" lon="-120.277130">
        <ele>661.033</ele>
        <time>2018-12-28T19:50:00Z</time>
      </trkpt>
      <trkpt lat="37.823670" lon="-120.277090">
        <ele>661.854</ele>
        <time>2018-12-28T19:50:20Z</time>
      </trkpt>
      <trkpt lat="37.823620" lon="-120.277070">
        <ele>662.856</ele>
        <time>2018-12-28T19:50:40Z</time>
      </trkpt>
      <trkpt lat="37.823560" lon="-120.277050">
        <ele>664.111</ele>
        <time>2018-12-28T19:51:00Z</time>
      </trkpt>
      <trkpt lat="37.823500" lon="-120.277040">
        <ele>665.208</ele>
        <time>2018-12-28T19:51:20Z</time>
      </trkpt>
      <trkpt lat="37.823450" lon="-120.277050">
        <ele>665.268</ele>
        <time>2018-12-28T19:51:40Z</time>
      </trkpt>
      <trkpt lat="37.823380" lon="-120.277050">
        <ele>665.816</ele>
        <time>2018-12-28T19:52:00Z</time>
      </trkpt>
      <trkpt lat="37.823160" lon="-120.277080">
        <ele>665.611</ele>
        <time>2018-12-28T19:52:20Z</time>
      </trkpt>
      <trkpt lat="37.823020" lon="-120.277100">
        <ele>665.410</ele>
        <time>2018-12-28T19:52:40Z</time>
      </trkpt>
      <trkpt lat="37.822940" lon="-120.277120">
        <ele>665.134</ele>
        <time>2018-12-28T19:53:00Z</time>
      </trkpt>
      <trkpt lat="37.822890" lon="-120.277120">
        <ele>665.410</ele>
        <time>2018-12-28T19:53:20Z</time>
      </trkpt>
      <trkpt lat="37.822840" lon="-120.277120">
        <ele>665.857</ele>
        <time>2018-12-28T19:53:40Z</time>
      </trkpt>
      <trkpt lat="37.822790" lon="-120.277120">
        <ele>666.111</ele>
        <time>2018-12-28T19:54:00Z</time>
      </trkpt>
      <trkpt lat="37.822750" lon="-120.277100">
        <ele>667.289</ele>
        <time>2018-12-28T19:54:20Z</time>
      </trkpt>
      <trkpt lat="37.822710" lon="-120.277090">
        <ele>668.006</ele>
        <time>2018-12-28T19:54:40Z</time>
      </trkpt>
      <trkpt lat="37.822690" lon="-120.277070">
        <ele>668.826</ele>
        <time>2018-12-28T19:55:00Z</time>
      </trkpt>
      <trkpt lat="37.822660" lon="-120.277050">
        <ele>669.608</ele>
        <time>2018-12-28T19:55:20Z</time>
      </trkpt>
      <trkpt lat="37.822640" lon="-120.277030">
        <ele>670.341</ele>
        <time>2018-12-28T19:55:40Z</time>
      </trkpt>
      <trkpt lat="37.822610" lon="-120.276990">
        <ele>670.119</ele>
        <time>2018-12-28T19:56:00Z</time>
      </trkpt>
      <trkpt lat="37.822590" lon="-120.276960">
        <ele>670.064</ele>
        <time>2018-12-28T19:56:20Z</time>
      </trkpt>
      <trkpt lat="37.822570" lon="-120.276930">
        <ele>669.983</ele>
        <time>2018-12-28T19:56:40Z</time>
      </trkpt>
      <trkpt lat="37.822550" lon="-120.276890">
        <ele>669.977</ele>
        <time>2018-12-28T19:57:00Z</time>
      </trkpt>
      <trkpt lat="37.822540" lon="-120.276830">
        <ele>670.953</ele>
        <time>2018-12-28T19:57:20Z</time>
      </trkpt>
      <trkpt lat="37.822530" lon="-120.276790">
        <ele>671.150</ele>
        <time>2018-12-28T19:57:40Z</time>
      </trkpt>
      <trkpt lat="37.822530" lon="-120.276750">
        <ele>671.254</ele>
        <time>2018-12-28T19:58:00Z</time>
      </trkpt>
      <trkpt lat="37.822530" lon="-120.276690">
        <ele>671.374</ele>
        <time>2018-12-28T19:58:20Z</time>
      </trkpt>
      <trkpt lat="37.822540" lon="-120.276610">
        <ele>672.056</ele>
        <time>2018-12-28T19:58:40Z</time>
      </trkpt>
      <trkpt lat="37.822550" lon="-120.276550">
        <ele>672.721</ele>
        <time>2018-12-28T19:59:00Z</time>
      </trkpt>
      <trkpt lat="37.822560" lon="-120.276510">
        <ele>673.408</ele>
        <time>2018-12-28T19:59:20Z</time>
      </trkpt>
      <trkpt lat="37.822560" lon="-120.276460">
        <ele>673.520</ele>
        <time>2018-12-28T19:59:40Z</time>
      </trkpt>
      <trkpt lat="37.822570" lon="-120.276410">
        <ele>674.268</ele>
        <time>2018-12-28T20:00:00Z</time>
      </trkpt>
      <trkpt lat="37.822570" lon="-120.276360">
        <ele>674.323</ele>
        <time>2018-12-28T20:00:20Z</time>
      </trkpt>
      <trkpt lat="37.822570" lon="-120.276300">
        <ele>674.562</ele>
        <time>2018-12-28T20:00:40Z</time>
      </trkpt>
      <trkpt lat="37.822560" lon="-120.276260">
        <ele>674.116</ele>
        <time>2018-12-28T20:01:00Z</time>
      </trkpt>
      <trkpt lat="37.822550" lon="-120.276220">
        <ele>674.652</ele>
        <time>2018-12-28T20:01:20Z</time>
      </trkpt>
      <trkpt lat="37.822540" lon="-120.276180">
        <ele>675.489</ele>
        <time>2018-12-28T20:01:40Z</time>
      </trkpt>
      <trkpt lat="37.822520" lon="-120.276140">
        <ele>675.733</ele>
        <time>2018-12-28T20:02:00Z</time>
      </trkpt>
      <trkpt lat="37.822490" lon="-120.276090">
        <ele>675.954</ele>
        <time>2018-12-28T20:02:20Z</time>
      </trkpt>
      <trkpt lat="37.822450" lon="-120.276040">
        <ele>675.756</ele>
        <time>2018-12-28T20:02:40Z</time>
      </trkpt>
      <trkpt lat="37.822400" lon="-120.275970">
        <ele>676.011</ele>
        <time>2018-12-28T20:03:00Z</time>
      </trkpt>
      <trkpt lat="37.822350" lon="-120.275920">
        <ele>675.508</ele>
        <time>2018-12-28T20:03:20Z</time>
      </trkpt>
      <trkpt lat="37.822310" lon="-120.275860">
        <ele>675.938</ele>
        <time>2018-12-28T20:03:40Z</time>
      </trkpt>
      <trkpt lat="37.822280" lon="-120.275810">
        <ele>676.156</ele>
        <time>2018-12-28T20:04:00Z</time>
      </trkpt>
      <trkpt lat="37.822260" lon="-120.275760">
        <ele>676.841</ele>
        <time>2018-12-28T20:04:20Z</time>
      </trkpt>
      <trkpt lat="37.822240" lon="-120.275700">
        <ele>677.630</ele>
        <time>2018-12-28T20:04:40Z</time>
      </trkpt>
      <trkpt lat="37.822220" lon="-120.275640">
        <ele>678.134</ele>
        <time>2018-12-28T20:05:00Z</time>
      </trkpt>
      <trkpt lat="37.822200" lon="-120.275560">
        <ele>679.160</ele>
        <time>2018-12-28T20:05:20Z</time>
      </trkpt>
      <trkpt lat="37.822190" lon="-120.275450">
        <ele>681.457</ele>
        <time>2018-12-28T20:05:40Z</time>
      </trkpt>
      <trkpt lat="37.822180" lon="-120.275350">
        <ele>682.121</ele>
        <time>2018-12-28T20:06:00Z</time>
      </trkpt>
      <trkpt lat="37.822160" lon="-120.275250">
        <ele>681.727</ele>
        <time>2018-12-28T20:06:20Z</time>
      </trkpt>
      <trkpt lat="37.822150" lon="-120.275170">
        <ele>681.768</ele>
        <time>2018-12-28T20:06:40Z</time>
      </trkpt>
      <trkpt lat="37.822140" lon="-120.275120">
        <ele>681.614</ele>
        <time>2018-12-28T20:07:00Z</time>
      </trkpt>
      <trkpt lat="37.822130" lon="-120.275080">
        <ele>681.808</ele>
        <time>2018-12-28T20:07:20Z</time>
      </trkpt>
      <trkpt lat="37.822110" lon="-120.275040">
        <ele>681.715</ele>
        <time>2018-12-28T20:07:40Z</time>
      </trkpt>
      <trkpt lat="37.822080" lon="-120.274980">
        <ele>681.883</ele>
        <time>2018-12-28T20:08:00Z</time>
      </trkpt>
      <trkpt lat="37.822050" lon="-120.274930">
        <ele>682.478</ele>
        <time>2018-12-28T20:08:20Z</time>
      </trkpt>
      <trkpt lat="37.822000" lon="-120.274880">
        <ele>683.017</ele>
        <time>2018-12-28T20:08:40Z</time>
      </trkpt>
      <trkpt lat="37.821960" lon="-120.274850">
        <ele>683.571</ele>
        <time>2018-12-28T20:09:00Z</time>
      </trkpt>
      <trkpt lat="37.821920" lon="-120.274830">
        <ele>683.557</ele>
        <time>2018-12-28T20:09:20Z</time>
      </trkpt>
      <trkpt lat="37.821890" lon="-120.274820">
        <ele>683.284</ele>
        <time>2018-12-28T20:09:40Z</time>
      </trkpt>
      <trkpt lat="37.821850" lon="-120.274810">
        <ele>682.698</ele>
        <time>2018-12-28T20:10:00Z</time>
      </trkpt>
      <trkpt lat="37.821800" lon="-120.274800">
        <ele>681.979</ele>
        <time>2018-12-28T20:10:20Z</time>
      </trkpt>
      <trkpt lat="37.821750" lon="-120.274800">
        <ele>682.705</ele>
        <time>2018-12-28T20:10:40Z</time>
      </trkpt>
      <trkpt lat="37.821700" lon="-120.274810">
        <ele>683.225</ele>
        <time>2018-12-28T20:11:00Z</time>
      </trkpt>
      <trkpt lat="37.821660" lon="-120.274820">
        <ele>683.508</ele>
        <time>2018-12-28T20:11:20Z</time>
      </trkpt>
      <trkpt lat="37.821620" lon="-120.274840">
        <ele>683.420</ele>
        <time>2018-12-28T20:11:40Z</time>
      </trkpt>
      <trkpt lat="37.821580" lon="-120.274870">
        <ele>683.058</ele>
        <time>2018-12-28T20:12:00Z</time>
      </trkpt>
      <trkpt lat="37.821540" lon="-120.274910">
        <ele>683.213</ele>
        <time>2018-12-28T20:12:20Z</time>
      </trkpt>
      <trkpt lat="37.821510" lon="-120.274950">
        <ele>684.352</ele>
        <time>2018-12-28T20:12:40Z</time>
      </trkpt>
      <trkpt lat="37.821470" lon="-120.275000">
        <ele>686.336</ele>
        <time>2018-12-28T20:13:00Z</time>
      </trkpt>
      <trkpt lat="37.821430" lon="-120.275090">
        <ele>687.892</ele>
        <time>2018-12-28T20:13:20Z</time>
      </trkpt>
      <trkpt lat="37.821390" lon="-120.275190">
        <ele>688.219</ele>
        <time>2018-12-28T20:13:40Z</time>
      </trkpt>
      <trkpt lat="37.821350" lon="-120.275330">
        <ele>687.343</ele>
        <time>2018-12-28T20:14:00Z</time>
      </trkpt>
      <trkpt lat="37.821300" lon="-120.275480">
        <ele>687.357</ele>
        <time>2018-12-28T20:14:20Z</time>
      </trkpt>
      <trkpt lat="37.821240" lon="-120.275670">
        <ele>688.400</ele>
        <time>2018-12-28T20:14:40Z</time>
      </trkpt>
      <trkpt lat="37.821140" lon="-120.275880">
        <ele>690.920</ele>
        <time>2018-12-28T20:15:00Z</time>
      </trkpt>
      <trkpt lat="37.821060" lon="-120.276060">
        <ele>690.308</ele>
        <time>2018-12-28T20:15:20Z</time>
      </trkpt>
      <trkpt lat="37.820970" lon="-120.276210">
        <ele>691.678</ele>
        <time>2018-12-28T20:15:40Z</time>
      </trkpt>
      <trkpt lat="37.820870" lon="-120.276370">
        <ele>692.716</ele>
        <time>2018-12-28T20:16:00Z</time>
      </trkpt>
      <trkpt lat="37.820730" lon="-120.276610">
        <ele>692.051</ele>
        <time>2018-12-28T20:16:20Z</time>
      </trkpt>
      <trkpt lat="37.820660" lon="-120.276710">
        <ele>693.880</ele>
        <time>2018-12-28T20:16:40Z</time>
      </trkpt>
      <trkpt lat="37.820620" lon="-120.276770">
        <ele>694.334</ele>
        <time>2018-12-28T20:17:00Z</time>
      </trkpt>
      <trkpt lat="37.820580" lon="-120.276830">
        <ele>694.460</ele>
        <time>2018-12-28T20:17:20Z</time>
      </trkpt>
      <trkpt lat="37.820550" lon="-120.276870">
        <ele>694.317</ele>
        <time>2018-12-28T20:17:40Z</time>
      </trkpt>
      <trkpt lat="37.820520" lon="-120.276890">
        <ele>695.091</ele>
        <time>2018-12-28T20:18:00Z</time>
      </trkpt>
      <trkpt lat="37.820480" lon="-120.276910">
        <ele>696.215</ele>
        <time>2018-12-28T20:18:20Z</time>
      </trkpt>
      <trkpt lat="37.820440" lon="-120.276920">
        <ele>697.665</ele>
        <time>2018-12-28T20:18:40Z</time>
      </trkpt>
      <trkpt lat="37.820400" lon="-120.276930">
        <ele>698.311</ele>
        <time>2018-12-28T20:19:00Z</time>
      </trkpt>
      <trkpt lat="37.820360" lon="-120.276930">
        <ele>697.808</ele>
        <time>2018-12-28T20:19:20Z</time>
      </trkpt>
      <trkpt lat="37.820310" lon="-120.276920">
        <ele>697.584</ele>
        <time>2018-12-28T20:19:40Z</time>
      </trkpt>
      <trkpt lat="37.820280" lon="-120.276910">
        <ele>697.362</ele>
        <time>2018-12-28T20:20:00Z</time>
      </trkpt>
      <trkpt lat="37.820240" lon="-120.276880">
        <ele>697.547</ele>
        <time>2018-12-28T20:20:20Z</time>
      </trkpt>
      <trkpt lat="37.820210" lon="-120.276840">
        <ele>697.916</ele>
        <time>2018-12-28T20:20:40Z</time>
      </trkpt>
      <trkpt lat="37.820180" lon="-120.276800">
        <ele>698.350</ele>
        <time>2018-12-28T20:21:00Z</time>
      </trkpt>
      <trkpt lat="37.820150" lon="-120.276740">
        <ele>698.466</ele>
        <time>2018-12-28T20:21:20Z</time>
      </trkpt>
      <trkpt lat="37.820130" lon="-120.276680">
        <ele>698.293</ele>
        <time>2018-12-28T20:21:40Z</time>
      </trkpt>
      <trkpt lat="37.820090" lon="-120.276530">
        <ele>697.437</ele>
        <time>2018-12-28T20:22:00Z</time>
      </trkpt>
      <trkpt lat="37.820050" lon="-120.276370">
        <ele>700.099</ele>
        <time>2018-12-28T20:22:20Z</time>
      </trkpt>
      <trkpt lat="37.820020" lon="-120.276240">
        <ele>701.807</ele>
        <time>2018-12-28T20:22:40Z</time>
      </trkpt>
      <trkpt lat="37.819970" lon="-120.276090">
        <ele>703.727</ele>
        <time>2018-12-28T20:23:00Z</time>
      </trkpt>
      <trkpt lat="37.819920" lon="-120.275990">
        <ele>704.208</ele>
        <time>2018-12-28T20:23:20Z</time>
      </trkpt>
      <trkpt lat="37.819880" lon="-120.275940">
        <ele>704.392</ele>
        <time>2018-12-28T20:23:40Z</time>
      </trkpt>
      <trkpt lat="37.819840" lon="-120.275890">
        <ele>705.010</ele>
        <time>2018-12-28T20:24:00Z</time>
      </trkpt>
      <trkpt lat="37.819790" lon="-120.275850">
        <ele>705.075</ele>
        <time>2018-12-28T20:24:20Z</time>
      </trkpt>
      <trkpt lat="37.819750" lon="-120.275820">
        <ele>704.944</ele>
        <time>2018-12-28T20:24:40Z</time>
      </trkpt>
      <trkpt lat="37.819700" lon="-120.275780">
        <ele>704.798</ele>
        <time>2018-12-28T20:25:00Z</time>
      </trkpt>
      <trkpt lat="37.819650" lon="-120.275750">
        <ele>704.174</ele>
        <time>2018-12-28T20:25:20Z</time>
      </trkpt>
      <trkpt lat="37.819600" lon="-120.275740">
        <ele>702.571</ele>
        <time>2018-12-28T20:25:40Z</time>
      </trkpt>
      <trkpt lat="37.819550" lon="-120.275720">
        <ele>702.885</ele>
        <time>2018-12-28T20:26:00Z</time>
      </trkpt>
      <trkpt lat="37.819480" lon="-120.275710">
        <ele>703.538</ele>
        <time>2018-12-28T20:26:20Z</time>
      </trkpt>
      <trkpt lat="37.819390" lon="-120.275700">
        <ele>704.470</ele>
        <time>2018-12-28T20:26:40Z</time>
      </trkpt>
      <trkpt lat="37.819340" lon="-120.275680">
        <ele>705.617</ele>
        <time>2018-12-28T20:27:00Z</time>
      </trkpt>
      <trkpt lat="37.819280" lon="-120.275650">
        <ele>706.708</ele>
        <time>2018-12-28T20:27:20Z</time>
      </trkpt>
      <trkpt lat="37.819240" lon="-120.275630">
        <ele>706.686</ele>
        <time>2018-12-28T20:27:40Z</time>
      </trkpt>
      <trkpt lat="37.819200" lon="-120.275590">
        <ele>707.354</ele>
        <time>2018-12-28T20:28:00Z</time>
      </trkpt>
      <trkpt lat="37.819160" lon="-120.275540">
        <ele>708.169</ele>
        <time>2018-12-28T20:28:20Z</time>
      </trkpt>
      <trkpt lat="37.819120" lon="-120.275490">
        <ele>708.518</ele>
        <time>2018-12-28T20:28:40Z</time>
      </trkpt>
      <trkpt lat="37.819090" lon="-120.275440">
        <ele>709.062</ele>
        <time>2018-12-28T20:29:00Z</time>
      </trkpt>
      <trkpt lat="37.819060" lon="-120.275370">
        <ele>708.878</ele>
        <time>2018-12-28T20:29:20Z</time>
      </trkpt>
      <trkpt lat="37.819040" lon="-120.275290">
        <ele>708.315</ele>
        <time>2018-12-28T20:29:40Z</time>
      </trkpt>
      <trkpt lat="37.819030" lon="-120.275210">
        <ele>708.199</ele>
        <time>2018-12-28T20:30:00Z</time>
      </trkpt>
      <trkpt lat="37.819030" lon="-120.275130">
        <ele>708.558</ele>
        <time>2018-12-28T20:30:20Z</time>
      </trkpt>
      <trkpt lat="37.819040" lon="-120.275000">
        <ele>709.852</ele>
        <time>2018-12-28T20:30:40Z</time>
      </trkpt>
      <trkpt lat="37.819050" lon="-120.274870">
        <ele>711.217</ele>
        <time>2018-12-28T20:31:00Z</time>
      </trkpt>
      <trkpt lat="37.819060" lon="-120.274770">
        <ele>712.408</ele>
        <time>2018-12-28T20:31:20Z</time>
      </trkpt>
      <trkpt lat="37.819060" lon="-120.274680">
        <ele>712.928</ele>
        <time>2018-12-28T20:31:40Z</time>
      </trkpt>
      <trkpt lat="37.819060" lon="-120.274510">
        <ele>714.056</ele>
        <time>2018-12-28T20:32:00Z</time>
      </trkpt>
      <trkpt lat="37.819050" lon="-120.274420">
        <ele>713.841</ele>
        <time>2018-12-28T20:32:20Z</time>
      </trkpt>
      <trkpt lat="37.819040" lon="-120.274350">
        <ele>713.480</ele>
        <time>2018-12-28T20:32:40Z</time>
      </trkpt>
      <trkpt lat="37.819030" lon="-120.274300">
        <ele>713.154</ele>
        <time>2018-12-28T20:33:00Z</time>
      </trkpt>
      <trkpt lat="37.819010" lon="-120.274250">
        <ele>714.830</ele>
        <time>2018-12-28T20:33:20Z</time>
      </trkpt>
      <trkpt lat="37.818980" lon="-120.274190">
        <ele>716.637</ele>
        <time>2018-12-28T20:33:40Z</time>
      </trkpt>
      <trkpt lat="37.818940" lon="-120.274150">
        <ele>717.051</ele>
        <time>2018-12-28T20:34:00Z</time>
      </trkpt>
      <trkpt lat="37.818900" lon="-120.274120">
        <ele>716.921</ele>
        <time>2018-12-28T20:34:20Z</time>
      </trkpt>
      <trkpt lat="37.818870" lon="-120.274110">
        <ele>716.241</ele>
        <time>2018-12-28T20:34:40Z</time>
      </trkpt>
      <trkpt lat="37.818840" lon="-120.274090">
        <ele>715.805</ele>
        <time>2018-12-28T20:35:00Z</time>
      </trkpt>
      <trkpt lat="37.818810" lon="-120.274090">
        <ele>714.708</ele>
        <time>2018-12-28T20:35:20Z</time>
      </trkpt>
      <trkpt lat="37.818760" lon="-120.274090">
        <ele>712.775</ele>
        <time>2018-12-28T20:35:40Z</time>
      </trkpt>
      <trkpt lat="37.818720" lon="-120.274100">
        <ele>712.023</ele>
        <time>2018-12-28T20:36:00Z</time>
      </trkpt>
      <trkpt lat="37.818640" lon="-120.274110">
        <ele>712.198</ele>
        <time>2018-12-28T20:36:20Z</time>
      </trkpt>
      <trkpt lat="37.818580" lon="-120.274120">
        <ele>712.167</ele>
        <time>2018-12-28T20:36:40Z</time>
      </trkpt>
      <trkpt lat="37.818530" lon="-120.274110">
        <ele>712.761</ele>
        <time>2018-12-28T20:37:00Z</time>
      </trkpt>
      <trkpt lat="37.818490" lon="-120.274100">
        <ele>713.237</ele>
        <time>2018-12-28T20:37:20Z</time>
      </trkpt>
      <trkpt lat="37.818440" lon="-120.274080">
        <ele>713.344</ele>
        <time>2018-12-28T20:37:40Z</time>
      </trkpt>
      <trkpt lat="37.818400" lon="-120.274050">
        <ele>713.618</ele>
        <time>2018-12-28T20:38:00Z</time>
      </trkpt>
      <trkpt lat="37.818360" lon="-120.274000">
        <ele>714.734</ele>
        <time>2018-12-28T20:38:20Z</time>
      </trkpt>
      <trkpt lat="37.818340" lon="-120.273950">
        <ele>716.255</ele>
        <time>2018-12-28T20:38:40Z</time>
      </trkpt>
      <trkpt lat="37.818320" lon="-120.273900">
        <ele>717.510</ele>
        <time>2018-12-28T20:39:00Z</time>
      </trkpt>
      <trkpt lat="37.818300" lon="-120.273840">
        <ele>718.808</ele>
        <time>2018-12-28T20:39:20Z</time>
      </trkpt>
      <trkpt lat="37.818290" lon="-120.273770">
        <ele>720.766</ele>
        <time>2018-12-28T20:39:40Z</time>
      </trkpt>
      <trkpt lat="37.818270" lon="-120.273600">
        <ele>722.154</ele>
        <time>2018-12-28T20:40:00Z</time>
      </trkpt>
      <trkpt lat="37.818260" lon="-120.273440">
        <ele>723.239</ele>
        <time>2018-12-28T20:40:20Z</time>
      </trkpt>
      <trkpt lat="37.818250" lon="-120.273330">
        <ele>723.248</ele>
        <time>2018-12-28T20:40:40Z</time>
      </trkpt>
      <trkpt lat="37.818240" lon="-120.273200">
        <ele>723.352</ele>
        <time>2018-12-28T20:41:00Z</time>
      </trkpt>
      <trkpt lat="37.818220" lon="-120.273080">
        <ele>722.628</ele>
        <time>2018-12-28T20:41:20Z</time>
      </trkpt>
      <trkpt lat="37.818170" lon="-120.272850">
        <ele>721.335</ele>
        <time>2018-12-28T20:41:40Z</time>
      </trkpt>
      <trkpt lat="37.818130" lon="-120.272670">
        <ele>722.639</ele>
        <time>2018-12-28T20:42:00Z</time>
      </trkpt>
      <trkpt lat="37.818090" lon="-120.272490">
        <ele>727.141</ele>
        <time>2018-12-28T20:42:20Z</time>
      </trkpt>
      <trkpt lat="37.818050" lon="-120.272380">
        <ele>729.681</ele>
        <time>2018-12-28T20:42:40Z</time>
      </trkpt>
      <trkpt lat="37.818020" lon="-120.272310">
        <ele>729.309</ele>
        <time>2018-12-28T20:43:00Z</time>
      </trkpt>
      <trkpt lat="37.817990" lon="-120.272260">
        <ele>728.308</ele>
        <time>2018-12-28T20:43:20Z</time>
      </trkpt>
      <trkpt lat="37.817950" lon="-120.272230">
        <ele>726.787</ele>
        <time>2018-12-28T20:43:40Z</time>
      </trkpt>
      <trkpt lat="37.817920" lon="-120.272200">
        <ele>725.615</ele>
        <time>2018-12-28T20:44:00Z</time>
      </trkpt>
      <trkpt lat="37.817870" lon="-120.272180">
        <ele>725.810</ele>
        <time>2018-12-28T20:44:20Z</time>
      </trkpt>
      <trkpt lat="37.817830" lon="-120.272160">
        <ele>726.179</ele>
        <time>2018-12-28T20:44:40Z</time>
      </trkpt>
      <trkpt lat="37.817780" lon="-120.272160">
        <ele>726.353</ele>
        <time>2018-12-28T20:45:00Z</time>
      </trkpt>
      <trkpt lat="37.817730" lon="-120.272170">
        <ele>726.529</ele>
        <time>2018-12-28T20:45:20Z</time>
      </trkpt>
      <trkpt lat="37.817680" lon="-120.272190">
        <ele>726.736</ele>
        <time>2018-12-28T20:45:40Z</time>
      </trkpt>
      <trkpt lat="37.817650" lon="-120.272200">
        <ele>726.990</ele>
        <time>2018-12-28T20:46:00Z</time>
      </trkpt>
      <trkpt lat="37.817620" lon="-120.272230">
        <ele>727.848</ele>
        <time>2018-12-28T20:46:20Z</time>
      </trkpt>
      <trkpt lat="37.817530" lon="-120.272310">
        <ele>731.061</ele>
        <time>2018-12-28T20:46:40Z</time>
      </trkpt>
      <trkpt lat="37.817390" lon="-120.272450">
        <ele>732.317</ele>
        <time>2018-12-28T20:47:00Z</time>
      </trkpt>
      <trkpt lat="37.817240" lon="-120.272590">
        <ele>733.808</ele>
        <time>2018-12-28T20:47:20Z</time>
      </trkpt>
      <trkpt lat="37.817170" lon="-120.272680">
        <ele>733.227</ele>
        <time>2018-12-28T20:47:40Z</time>
      </trkpt>
      <trkpt lat="37.817080" lon="-120.272810">
        <ele>733.745</ele>
        <time>2018-12-28T20:48:00Z</time>
      </trkpt>
      <trkpt lat="37.817040" lon="-120.272860">
        <ele>734.390</ele>
        <time>2018-12-28T20:48:20Z</time>
      </trkpt>
      <trkpt lat="37.817010" lon="-120.272890">
        <ele>734.759</ele>
        <time>2018-12-28T20:48:40Z</time>
      </trkpt>
      <trkpt lat="37.816970" lon="-120.272930">
        <ele>734.773</ele>
        <time>2018-12-28T20:49:00Z</time>
      </trkpt>
      <trkpt lat="37.816930" lon="-120.272970">
        <ele>734.179</ele>
        <time>2018-12-28T20:49:20Z</time>
      </trkpt>
      <trkpt lat="37.816880" lon="-120.272990">
        <ele>734.876</ele>
        <time>2018-12-28T20:49:40Z</time>
      </trkpt>
      <trkpt lat="37.816800" lon="-120.273030">
        <ele>735.520</ele>
        <time>2018-12-28T20:50:00Z</time>
      </trkpt>
      <trkpt lat="37.816720" lon="-120.273050">
        <ele>735.232</ele>
        <time>2018-12-28T20:50:20Z</time>
      </trkpt>
      <trkpt lat="37.816670" lon="-120.273060">
        <ele>735.192</ele>
        <time>2018-12-28T20:50:40Z</time>
      </trkpt>
      <trkpt lat="37.816580" lon="-120.273060">
        <ele>735.811</ele>
        <time>2018-12-28T20:51:00Z</time>
      </trkpt>
      <trkpt lat="37.816510" lon="-120.273040">
        <ele>736.908</ele>
        <time>2018-12-28T20:51:20Z</time>
      </trkpt>
      <trkpt lat="37.816430" lon="-120.273020">
        <ele>736.336</ele>
        <time>2018-12-28T20:51:40Z</time>
      </trkpt>
      <trkpt lat="37.816280" lon="-120.272970">
        <ele>735.394</ele>
        <time>2018-12-28T20:52:00Z</time>
      </trkpt>
      <trkpt lat="37.816130" lon="-120.272910">
        <ele>738.299</ele>
        <time>2018-12-28T20:52:20Z</time>
      </trkpt>
      <trkpt lat="37.815930" lon="-120.272830">
        <ele>741.768</ele>
        <time>2018-12-28T20:52:40Z</time>
      </trkpt>
      <trkpt lat="37.815740" lon="-120.272730">
        <ele>739.712</ele>
        <time>2018-12-28T20:53:00Z</time>
      </trkpt>
      <trkpt lat="37.815580" lon="-120.272630">
        <ele>741.818</ele>
        <time>2018-12-28T20:53:20Z</time>
      </trkpt>
      <trkpt lat="37.815280" lon="-120.272440">
        <ele>745.025</ele>
        <time>2018-12-28T20:53:40Z</time>
      </trkpt>
      <trkpt lat="37.815110" lon="-120.272330">
        <ele>745.269</ele>
        <time>2018-12-28T20:54:00Z</time>
      </trkpt>
      <trkpt lat="37.815050" lon="-120.272290">
        <ele>746.558</ele>
        <time>2018-12-28T20:54:20Z</time>
      </trkpt>
      <trkpt lat="37.814980" lon="-120.272260">
        <ele>747.352</ele>
        <time>2018-12-28T20:54:40Z</time>
      </trkpt>
      <trkpt lat="37.814880" lon="-120.272220">
        <ele>748.517</ele>
        <time>2018-12-28T20:55:00Z</time>
      </trkpt>
      <trkpt lat="37.814820" lon="-120.272200">
        <ele>749.008</ele>
        <time>2018-12-28T20:55:20Z</time>
      </trkpt>
      <trkpt lat="37.814760" lon="-120.272190">
        <ele>749.138</ele>
        <time>2018-12-28T20:55:40Z</time>
      </trkpt>
      <trkpt lat="37.814700" lon="-120.272180">
        <ele>749.276</ele>
        <time>2018-12-28T20:56:00Z</time>
      </trkpt>
      <trkpt lat="37.814600" lon="-120.272180">
        <ele>748.651</ele>
        <time>2018-12-28T20:56:20Z</time>
      </trkpt>
      <trkpt lat="37.814440" lon="-120.272190">
        <ele>749.020</ele>
        <time>2018-12-28T20:56:40Z</time>
      </trkpt>
      <trkpt lat="37.814360" lon="-120.272200">
        <ele>749.164</ele>
        <time>2018-12-28T20:57:00Z</time>
      </trkpt>
      <trkpt lat="37.814290" lon="-120.272200">
        <ele>749.420</ele>
        <time>2018-12-28T20:57:20Z</time>
      </trkpt>
      <trkpt lat="37.814240" lon="-120.272190">
        <ele>749.637</ele>
        <time>2018-12-28T20:57:40Z</time>
      </trkpt>
      <trkpt lat="37.814190" lon="-120.272170">
        <ele>749.991</ele>
        <time>2018-12-28T20:58:00Z</time>
      </trkpt>
      <trkpt lat="37.814150" lon="-120.272160">
        <ele>749.922</ele>
        <time>2018-12-28T20:58:20Z</time>
      </trkpt>
      <trkpt lat="37.814110" lon="-120.272140">
        <ele>750.062</ele>
        <time>2018-12-28T20:58:40Z</time>
      </trkpt>
      <trkpt lat="37.814070" lon="-120.272110">
        <ele>750.208</ele>
        <time>2018-12-28T20:59:00Z</time>
      </trkpt>
      <trkpt lat="37.814040" lon="-120.272080">
        <ele>750.308</ele>
        <time>2018-12-28T20:59:20Z</time>
      </trkpt>
      <trkpt lat="37.814020" lon="-120.272050">
        <ele>750.355</ele>
        <time>2018-12-28T20:59:40Z</time>
      </trkpt>
      <trkpt lat="37.814000" lon="-120.272020">
        <ele>750.383</ele>
        <time>2018-12-28T21:00:00Z</time>
      </trkpt>
      <trkpt lat="37.813980" lon="-120.271990">
        <ele>750.358</ele>
        <time>2018-12-28T21:00:20Z</time>
      </trkpt>
      <trkpt lat="37.813970" lon="-120.271960">
        <ele>750.397</ele>
        <time>2018-12-28T21:00:40Z</time>
      </trkpt>
      <trkpt lat="37.813970" lon="-120.271940">
        <ele>750.331</ele>
        <time>2018-12-28T21:01:00Z</time>
      </trkpt>
      <trkpt lat="37.813960" lon="-120.271920">
        <ele>750.227</ele>
        <time>2018-12-28T21:01:20Z</time>
      </trkpt>
      <trkpt lat="37.813960" lon="-120.271890">
        <ele>750.234</ele>
        <time>2018-12-28T21:01:40Z</time>
      </trkpt>
      <trkpt lat="37.813950" lon="-120.271830">
        <ele>750.178</ele>
        <time>2018-12-28T21:02:00Z</time>
      </trkpt>
      <trkpt lat="37.813950" lon="-120.271800">
        <ele>750.114</ele>
        <time>2018-12-28T21:02:20Z</time>
      </trkpt>
      <trkpt lat="37.813950" lon="-120.271780">
        <ele>750.154</ele>
        <time>2018-12-28T21:02:40Z</time>
      </trkpt>
      <trkpt lat="37.813950" lon="-120.271710">
        <ele>750.009</ele>
        <time>2018-12-28T21:03:00Z</time>
      </trkpt>
      <trkpt lat="37.813960" lon="-120.271610">
        <ele>750.108</ele>
        <time>2018-12-28T21:03:20Z</time>
      </trkpt>
      <trkpt lat="37.813980" lon="-120.271510">
        <ele>750.544</ele>
        <time>2018-12-28T21:03:40Z</time>
      </trkpt>
      <trkpt lat="37.814010" lon="-120.271390">
        <ele>751.182</ele>
        <time>2018-12-28T21:04:00Z</time>
      </trkpt>
      <trkpt lat="37.814110" lon="-120.271010">
        <ele>751.987</ele>
        <time>2018-12-28T21:04:20Z</time>
      </trkpt>
      <trkpt lat="37.814170" lon="-120.270760">
        <ele>752.816</ele>
        <time>2018-12-28T21:04:40Z</time>
      </trkpt>
      <trkpt lat="37.814230" lon="-120.270570">
        <ele>753.660</ele>
        <time>2018-12-28T21:05:00Z</time>
      </trkpt>
      <trkpt lat="37.814280" lon="-120.270430">
        <ele>753.916</ele>
        <time>2018-12-28T21:05:20Z</time>
      </trkpt>
      <trkpt lat="37.814380" lon="-120.270220">
        <ele>756.293</ele>
        <time>2018-12-28T21:05:40Z</time>
      </trkpt>
      <trkpt lat="37.814470" lon="-120.270050">
        <ele>757.587</ele>
        <time>2018-12-28T21:06:00Z</time>
      </trkpt>
      <trkpt lat="37.814600" lon="-120.269860">
        <ele>758.854</ele>
        <time>2018-12-28T21:06:20Z</time>
      </trkpt>
      <trkpt lat="37.814750" lon="-120.269660">
        <ele>759.256</ele>
        <time>2018-12-28T21:06:40Z</time>
      </trkpt>
      <trkpt lat="37.814890" lon="-120.269510">
        <ele>760.811</ele>
        <time>2018-12-28T21:07:00Z</time>
      </trkpt>
      <trkpt lat="37.815040" lon="-120.269360">
        <ele>762.408</ele>
        <time>2018-12-28T21:07:20Z</time>
      </trkpt>
      <trkpt lat="37.815160" lon="-120.269280">
        <ele>763.788</ele>
        <time>2018-12-28T21:07:40Z</time>
      </trkpt>
      <trkpt lat="37.815260" lon="-120.269220">
        <ele>764.246</ele>
        <time>2018-12-28T21:08:00Z</time>
      </trkpt>
      <trkpt lat="37.815380" lon="-120.269180">
        <ele>765.521</ele>
        <time>2018-12-28T21:08:20Z</time>
      </trkpt>
      <trkpt lat="37.815630" lon="-120.269110">
        <ele>767.730</ele>
        <time>2018-12-28T21:08:40Z</time>
      </trkpt>
      <trkpt lat="37.815910" lon="-120.269030">
        <ele>770.264</ele>
        <time>2018-12-28T21:09:00Z</time>
      </trkpt>
      <trkpt lat="37.816170" lon="-120.268930">
        <ele>774.460</ele>
        <time>2018-12-28T21:09:20Z</time>
      </trkpt>
      <trkpt lat="37.816360" lon="-120.268860">
        <ele>777.527</ele>
        <time>2018-12-28T21:09:40Z</time>
      </trkpt>
      <trkpt lat="37.816500" lon="-120.268790">
        <ele>777.881</ele>
        <time>2018-12-28T21:10:00Z</time>
      </trkpt>
      <trkpt lat="37.816620" lon="-120.268720">
        <ele>777.994</ele>
        <time>2018-12-28T21:10:20Z</time>
      </trkpt>
      <trkpt lat="37.816710" lon="-120.268660">
        <ele>778.957</ele>
        <time>2018-12-28T21:10:40Z</time>
      </trkpt>
      <trkpt lat="37.816780" lon="-120.268600">
        <ele>779.822</ele>
        <time>2018-12-28T21:11:00Z</time>
      </trkpt>
      <trkpt lat="37.816840" lon="-120.268540">
        <ele>779.508</ele>
        <time>2018-12-28T21:11:20Z</time>
      </trkpt>
      <trkpt lat="37.816910" lon="-120.268460">
        <ele>778.252</ele>
        <time>2018-12-28T21:11:40Z</time>
      </trkpt>
      <trkpt lat="37.816970" lon="-120.268380">
        <ele>778.340</ele>
        <time>2018-12-28T21:12:00Z</time>
      </trkpt>
      <trkpt lat="37.817020" lon="-120.268280">
        <ele>780.175</ele>
        <time>2018-12-28T21:12:20Z</time>
      </trkpt>
      <trkpt lat="37.817070" lon="-120.268180">
        <ele>783.164</ele>
        <time>2018-12-28T21:12:40Z</time>
      </trkpt>
      <trkpt lat="37.817100" lon="-120.268090">
        <ele>784.638</ele>
        <time>2018-12-28T21:13:00Z</time>
      </trkpt>
      <trkpt lat="37.817120" lon="-120.268010">
        <ele>786.034</ele>
        <time>2018-12-28T21:13:20Z</time>
      </trkpt>
      <trkpt lat="37.817150" lon="-120.267900">
        <ele>788.261</ele>
        <time>2018-12-28T21:13:40Z</time>
      </trkpt>
      <trkpt lat="37.817170" lon="-120.267760">
        <ele>790.255</ele>
        <time>2018-12-28T21:14:00Z</time>
      </trkpt>
      <trkpt lat="37.817190" lon="-120.267590">
        <ele>792.197</ele>
        <time>2018-12-28T21:14:20Z</time>
      </trkpt>
      <trkpt lat="37.817210" lon="-120.267390">
        <ele>793.123</ele>
        <time>2018-12-28T21:14:40Z</time>
      </trkpt>
      <trkpt lat="37.817220" lon="-120.267240">
        <ele>793.125</ele>
        <time>2018-12-28T21:15:00Z</time>
      </trkpt>
      <trkpt lat="37.817240" lon="-120.267090">
        <ele>793.408</ele>
        <time>2018-12-28T21:15:20Z</time>
      </trkpt>
      <trkpt lat="37.817270" lon="-120.266960">
        <ele>793.572</ele>
        <time>2018-12-28T21:15:40Z</time>
      </trkpt>
      <trkpt lat="37.817300" lon="-120.266850">
        <ele>793.450</ele>
        <time>2018-12-28T21:16:00Z</time>
      </trkpt>
      <trkpt lat="37.817340" lon="-120.266740">
        <ele>794.475</ele>
        <time>2018-12-28T21:16:20Z</time>
      </trkpt>
      <trkpt lat="37.817400" lon="-120.266610">
        <ele>797.054</ele>
        <time>2018-12-28T21:16:40Z</time>
      </trkpt>
      <trkpt lat="37.817520" lon="-120.266410">
        <ele>798.158</ele>
        <time>2018-12-28T21:17:00Z</time>
      </trkpt>
      <trkpt lat="37.817720" lon="-120.266080">
        <ele>801.464</ele>
        <time>2018-12-28T21:17:20Z</time>
      </trkpt>
      <trkpt lat="37.817960" lon="-120.265670">
        <ele>805.421</ele>
        <time>2018-12-28T21:17:40Z</time>
      </trkpt>
      <trkpt lat="37.818280" lon="-120.265130">
        <ele>810.975</ele>
        <time>2018-12-28T21:18:00Z</time>
      </trkpt>
      <trkpt lat="37.818490" lon="-120.264800">
        <ele>813.681</ele>
        <time>2018-12-28T21:18:20Z</time>
      </trkpt>
      <trkpt lat="37.818610" lon="-120.264610">
        <ele>816.861</ele>
        <time>2018-12-28T21:18:40Z</time>
      </trkpt>
      <trkpt lat="37.818720" lon="-120.264480">
        <ele>819.017</ele>
        <time>2018-12-28T21:19:00Z</time>
      </trkpt>
      <trkpt lat="37.818800" lon="-120.264390">
        <ele>820.808</ele>
        <time>2018-12-28T21:19:20Z</time>
      </trkpt>
      <trkpt lat="37.818910" lon="-120.264290">
        <ele>822.931</ele>
        <time>2018-12-28T21:19:40Z</time>
      </trkpt>
      <trkpt lat="37.819040" lon="-120.264170">
        <ele>824.779</ele>
        <time>2018-12-28T21:20:00Z</time>
      </trkpt>
      <trkpt lat="37.819320" lon="-120.263940">
        <ele>829.084</ele>
        <time>2018-12-28T21:20:20Z</time>
      </trkpt>
      <trkpt lat="37.819580" lon="-120.263740">
        <ele>832.853</ele>
        <time>2018-12-28T21:20:40Z</time>
      </trkpt>
      <trkpt lat="37.819900" lon="-120.263520">
        <ele>838.557</ele>
        <time>2018-12-28T21:21:00Z</time>
      </trkpt>
      <trkpt lat="37.820020" lon="-120.263430">
        <ele>839.353</ele>
        <time>2018-12-28T21:21:20Z</time>
      </trkpt>
      <trkpt lat="37.820100" lon="-120.263370">
        <ele>840.020</ele>
        <time>2018-12-28T21:21:40Z</time>
      </trkpt>
      <trkpt lat="37.820170" lon="-120.263300">
        <ele>840.774</ele>
        <time>2018-12-28T21:22:00Z</time>
      </trkpt>
      <trkpt lat="37.820250" lon="-120.263220">
        <ele>841.862</ele>
        <time>2018-12-28T21:22:20Z</time>
      </trkpt>
      <trkpt lat="37.820330" lon="-120.263140">
        <ele>843.083</ele>
        <time>2018-12-28T21:22:40Z</time>
      </trkpt>
      <trkpt lat="37.820450" lon="-120.263020">
        <ele>844.111</ele>
        <time>2018-12-28T21:23:00Z</time>
      </trkpt>
      <trkpt lat="37.820550" lon="-120.262930">
        <ele>844.208</ele>
        <time>2018-12-28T21:23:20Z</time>
      </trkpt>
      <trkpt lat="37.820650" lon="-120.262860">
        <ele>844.549</ele>
        <time>2018-12-28T21:23:40Z</time>
      </trkpt>
      <trkpt lat="37.820760" lon="-120.262800">
        <ele>844.717</ele>
        <time>2018-12-28T21:24:00Z</time>
      </trkpt>
      <trkpt lat="37.820990" lon="-120.262690">
        <ele>846.492</ele>
        <time>2018-12-28T21:24:20Z</time>
      </trkpt>
      <trkpt lat="37.821140" lon="-120.262610">
        <ele>848.241</ele>
        <time>2018-12-28T21:24:40Z</time>
      </trkpt>
      <trkpt lat="37.821250" lon="-120.262540">
        <ele>848.885</ele>
        <time>2018-12-28T21:25:00Z</time>
      </trkpt>
      <trkpt lat="37.821350" lon="-120.262470">
        <ele>849.121</ele>
        <time>2018-12-28T21:25:20Z</time>
      </trkpt>
      <trkpt lat="37.821450" lon="-120.262370">
        <ele>848.558</ele>
        <time>2018-12-28T21:25:40Z</time>
      </trkpt>
      <trkpt lat="37.821560" lon="-120.262260">
        <ele>849.612</ele>
        <time>2018-12-28T21:26:00Z</time>
      </trkpt>
      <trkpt lat="37.821660" lon="-120.262150">
        <ele>850.048</ele>
        <time>2018-12-28T21:26:20Z</time>
      </trkpt>
      <trkpt lat="37.821770" lon="-120.262040">
        <ele>850.661</ele>
        <time>2018-12-28T21:26:40Z</time>
      </trkpt>
      <trkpt lat="37.821870" lon="-120.261950">
        <ele>851.417</ele>
        <time>2018-12-28T21:27:00Z</time>
      </trkpt>
      <trkpt lat="37.821990" lon="-120.261860">
        <ele>852.008</ele>
        <time>2018-12-28T21:27:20Z</time>
      </trkpt>
      <trkpt lat="37.822090" lon="-120.261800">
        <ele>852.227</ele>
        <time>2018-12-28T21:27:40Z</time>
      </trkpt>
      <trkpt lat="37.822220" lon="-120.261710">
        <ele>852.785</ele>
        <time>2018-12-28T21:28:00Z</time>
      </trkpt>
      <trkpt lat="37.822360" lon="-120.261620">
        <ele>853.310</ele>
        <time>2018-12-28T21:28:20Z</time>
      </trkpt>
      <trkpt lat="37.822440" lon="-120.261560">
        <ele>853.939</ele>
        <time>2018-12-28T21:28:40Z</time>
      </trkpt>
      <trkpt lat="37.822490" lon="-120.261520">
        <ele>854.253</ele>
        <time>2018-12-28T21:29:00Z</time>
      </trkpt>
      <trkpt lat="37.822530" lon="-120.261480">
        <ele>854.429</ele>
        <time>2018-12-28T21:29:20Z</time>
      </trkpt>
      <trkpt lat="37.822560" lon="-120.261440">
        <ele>854.646</ele>
        <time>2018-12-28T21:29:40Z</time>
      </trkpt>
      <trkpt lat="37.822580" lon="-120.261400">
        <ele>854.720</ele>
        <time>2018-12-28T21:30:00Z</time>
      </trkpt>
      <trkpt lat="37.822610" lon="-120.261340">
        <ele>854.935</ele>
        <time>2018-12-28T21:30:20Z</time>
      </trkpt>
      <trkpt lat="37.822650" lon="-120.261220">
        <ele>855.286</ele>
        <time>2018-12-28T21:30:40Z</time>
      </trkpt>
      <trkpt lat="37.822680" lon="-120.261090">
        <ele>855.314</ele>
        <time>2018-12-28T21:31:00Z</time>
      </trkpt>
      <trkpt lat="37.822750" lon="-120.260780">
        <ele>855.908</ele>
        <time>2018-12-28T21:31:20Z</time>
      </trkpt>
      <trkpt lat="37.822830" lon="-120.260510">
        <ele>856.826</ele>
        <time>2018-12-28T21:31:40Z</time>
      </trkpt>
      <trkpt lat="37.822910" lon="-120.260180">
        <ele>858.744</ele>
        <time>2018-12-28T21:32:00Z</time>
      </trkpt>
      <trkpt lat="37.823000" lon="-120.259810">
        <ele>858.449</ele>
        <time>2018-12-28T21:32:20Z</time>
      </trkpt>
      <trkpt lat="37.823090" lon="-120.259500">
        <ele>859.048</ele>
        <time>2018-12-28T21:32:40Z</time>
      </trkpt>
      <trkpt lat="37.823130" lon="-120.259340">
        <ele>859.632</ele>
        <time>2018-12-28T21:33:00Z</time>
      </trkpt>
      <trkpt lat="37.823170" lon="-120.259210">
        <ele>860.468</ele>
        <time>2018-12-28T21:33:20Z</time>
      </trkpt>
      <trkpt lat="37.823190" lon="-120.259110">
        <ele>861.195</ele>
        <time>2018-12-28T21:33:40Z</time>
      </trkpt>
      <trkpt lat="37.823200" lon="-120.259010">
        <ele>861.669</ele>
        <time>2018-12-28T21:34:00Z</time>
      </trkpt>
      <trkpt lat="37.823220" lon="-120.258930">
        <ele>861.836</ele>
        <time>2018-12-28T21:34:20Z</time>
      </trkpt>
      <trkpt lat="37.823230" lon="-120.258860">
        <ele>862.017</ele>
        <time>2018-12-28T21:34:40Z</time>
      </trkpt>
      <trkpt lat="37.823230" lon="-120.258750">
        <ele>862.418</ele>
        <time>2018-12-28T21:35:00Z</time>
      </trkpt>
      <trkpt lat="37.823250" lon="-120.258610">
        <ele>862.408</ele>
        <time>2018-12-28T21:35:20Z</time>
      </trkpt>
      <trkpt lat="37.823260" lon="-120.258490">
        <ele>862.426</ele>
        <time>2018-12-28T21:35:40Z</time>
      </trkpt>
      <trkpt lat="37.823270" lon="-120.258380">
        <ele>862.444</ele>
        <time>2018-12-28T21:36:00Z</time>
      </trkpt>
      <trkpt lat="37.823280" lon="-120.258300">
        <ele>862.449</ele>
        <time>2018-12-28T21:36:20Z</time>
      </trkpt>
      <trkpt lat="37.823300" lon="-120.258230">
        <ele>862.688</ele>
        <time>2018-12-28T21:36:40Z</time>
      </trkpt>
      <trkpt lat="37.823320" lon="-120.258160">
        <ele>862.772</ele>
        <time>2018-12-28T21:37:00Z</time>
      </trkpt>
      <trkpt lat="37.823350" lon="-120.258090">
        <ele>863.018</ele>
        <time>2018-12-28T21:37:20Z</time>
      </trkpt>
      <trkpt lat="37.823410" lon="-120.257970">
        <ele>863.885</ele>
        <time>2018-12-28T21:37:40Z</time>
      </trkpt>
      <trkpt lat="37.823490" lon="-120.257870">
        <ele>864.869</ele>
        <time>2018-12-28T21:38:00Z</time>
      </trkpt>
      <trkpt lat="37.823560" lon="-120.257780">
        <ele>865.047</ele>
        <time>2018-12-28T21:38:20Z</time>
      </trkpt>
      <trkpt lat="37.823680" lon="-120.257640">
        <ele>866.229</ele>
        <time>2018-12-28T21:38:40Z</time>
      </trkpt>
      <trkpt lat="37.823850" lon="-120.257490">
        <ele>868.221</ele>
        <time>2018-12-28T21:39:00Z</time>
      </trkpt>
      <trkpt lat="37.824000" lon="-120.257340">
        <ele>870.108</ele>
        <time>2018-12-28T21:39:20Z</time>
      </trkpt>
      <trkpt lat="37.824130" lon="-120.257210">
        <ele>870.657</ele>
        <time>2018-12-28T21:39:40Z</time>
      </trkpt>
      <trkpt lat="37.824220" lon="-120.257110">
        <ele>871.485</ele>
        <time>2018-12-28T21:40:00Z</time>
      </trkpt>
      <trkpt lat="37.824340" lon="-120.256980">
        <ele>871.890</ele>
        <time>2018-12-28T21:40:20Z</time>
      </trkpt>
      <trkpt lat="37.824470" lon="-120.256820">
        <ele>871.279</ele>
        <time>2018-12-28T21:40:40Z</time>
      </trkpt>
      <trkpt lat="37.824540" lon="-120.256730">
        <ele>870.623</ele>
        <time>2018-12-28T21:41:00Z</time>
      </trkpt>
      <trkpt lat="37.824650" lon="-120.256570">
        <ele>870.649</ele>
        <time>2018-12-28T21:41:20Z</time>
      </trkpt>
      <trkpt lat="37.824750" lon="-120.256440">
        <ele>871.726</ele>
        <time>2018-12-28T21:41:40Z</time>
      </trkpt>
      <trkpt lat="37.824820" lon="-120.256330">
        <ele>872.730</ele>
        <time>2018-12-28T21:42:00Z</time>
      </trkpt>
      <trkpt lat="37.824900" lon="-120.256160">
        <ele>873.951</ele>
        <time>2018-12-28T21:42:20Z</time>
      </trkpt>
      <trkpt lat="37.824960" lon="-120.256030">
        <ele>874.701</ele>
        <time>2018-12-28T21:42:40Z</time>
      </trkpt>
      <trkpt lat="37.825020" lon="-120.255900">
        <ele>875.411</ele>
        <time>2018-12-28T21:43:00Z</time>
      </trkpt>
      <trkpt lat="37.825110" lon="-120.255640">
        <ele>877.208</ele>
        <time>2018-12-28T21:43:20Z</time>
      </trkpt>
      <trkpt lat="37.825190" lon="-120.255380">
        <ele>879.948</ele>
        <time>2018-12-28T21:43:40Z</time>
      </trkpt>
      <trkpt lat="37.825250" lon="-120.255170">
        <ele>881.656</ele>
        <time>2018-12-28T21:44:00Z</time>
      </trkpt>
      <trkpt lat="37.825320" lon="-120.254880">
        <ele>883.791</ele>
        <time>2018-12-28T21:44:20Z</time>
      </trkpt>
      <trkpt lat="37.825370" lon="-120.254680">
        <ele>884.230</ele>
        <time>2018-12-28T21:44:40Z</time>
      </trkpt>
      <trkpt lat="37.825410" lon="-120.254540">
        <ele>884.584</ele>
        <time>2018-12-28T21:45:00Z</time>
      </trkpt>
      <trkpt lat="37.825450" lon="-120.254440">
        <ele>885.350</ele>
        <time>2018-12-28T21:45:20Z</time>
      </trkpt>
      <trkpt lat="37.825500" lon="-120.254320">
        <ele>885.447</ele>
        <time>2018-12-28T21:45:40Z</time>
      </trkpt>
      <trkpt lat="37.825570" lon="-120.254180">
        <ele>884.771</ele>
        <time>2018-12-28T21:46:00Z</time>
      </trkpt>
      <trkpt lat="37.825670" lon="-120.253990">
        <ele>885.277</ele>
        <time>2018-12-28T21:46:20Z</time>
      </trkpt>
      <trkpt lat="37.825820" lon="-120.253670">
        <ele>886.161</ele>
        <time>2018-12-28T21:46:40Z</time>
      </trkpt>
      <trkpt lat="37.825900" lon="-120.253500">
        <ele>887.127</ele>
        <time>2018-12-28T21:47:00Z</time>
      </trkpt>
      <trkpt lat="37.825960" lon="-120.253390">
        <ele>888.908</ele>
        <time>2018-12-28T21:47:20Z</time>
      </trkpt>
      <trkpt lat="37.826010" lon="-120.253300">
        <ele>890.860</ele>
        <time>2018-12-28T21:47:40Z</time>
      </trkpt>
      <trkpt lat="37.826050" lon="-120.253240">
        <ele>891.958</ele>
        <time>2018-12-28T21:48:00Z</time>
      </trkpt>
      <trkpt lat="37.826090" lon="-120.253170">
        <ele>892.433</ele>
        <time>2018-12-28T21:48:20Z</time>
      </trkpt>
      <trkpt lat="37.826140" lon="-120.253120">
        <ele>892.532</ele>
        <time>2018-12-28T21:48:40Z</time>
      </trkpt>
      <trkpt lat="37.826180" lon="-120.253090">
        <ele>892.776</ele>
        <time>2018-12-28T21:49:00Z</time>
      </trkpt>
      <trkpt lat="37.826210" lon="-120.253060">
        <ele>892.772</ele>
        <time>2018-12-28T21:49:20Z</time>
      </trkpt>
      <trkpt lat="37.826370" lon="-120.252950">
        <ele>892.449</ele>
        <time>2018-12-28T21:49:40Z</time>
      </trkpt>
      <trkpt lat="37.826500" lon="-120.252850">
        <ele>892.823</ele>
        <time>2018-12-28T21:50:00Z</time>
      </trkpt>
      <trkpt lat="37.826590" lon="-120.252760">
        <ele>893.313</ele>
        <time>2018-12-28T21:50:20Z</time>
      </trkpt>
      <trkpt lat="37.826680" lon="-120.252660">
        <ele>894.143</ele>
        <time>2018-12-28T21:50:40Z</time>
      </trkpt>
      <trkpt lat="37.826790" lon="-120.252530">
        <ele>894.807</ele>
        <time>2018-12-28T21:51:00Z</time>
      </trkpt>
      <trkpt lat="37.826880" lon="-120.252420">
        <ele>894.808</ele>
        <time>2018-12-28T21:51:20Z</time>
      </trkpt>
      <trkpt lat="37.826970" lon="-120.252280">
        <ele>895.054</ele>
        <time>2018-12-28T21:51:40Z</time>
      </trkpt>
      <trkpt lat="37.827080" lon="-120.252110">
        <ele>896.072</ele>
        <time>2018-12-28T21:52:00Z</time>
      </trkpt>
      <trkpt lat="37.827140" lon="-120.252010">
        <ele>895.887</ele>
        <time>2018-12-28T21:52:20Z</time>
      </trkpt>
      <trkpt lat="37.827180" lon="-120.251940">
        <ele>895.726</ele>
        <time>2018-12-28T21:52:40Z</time>
      </trkpt>
      <trkpt lat="37.827260" lon="-120.251780">
        <ele>896.050</ele>
        <time>2018-12-28T21:53:00Z</time>
      </trkpt>
      <trkpt lat="37.827420" lon="-120.251410">
        <ele>897.626</ele>
        <time>2018-12-28T21:53:20Z</time>
      </trkpt>
      <trkpt lat="37.827600" lon="-120.251040">
        <ele>899.693</ele>
        <time>2018-12-28T21:53:40Z</time>
      </trkpt>
      <trkpt lat="37.827720" lon="-120.250780">
        <ele>900.277</ele>
        <time>2018-12-28T21:54:00Z</time>
      </trkpt>
      <trkpt lat="37.827850" lon="-120.250520">
        <ele>901.912</ele>
        <time>2018-12-28T21:54:20Z</time>
      </trkpt>
      <trkpt lat="37.827960" lon="-120.250310">
        <ele>902.732</ele>
        <time>2018-12-28T21:54:40Z</time>
      </trkpt>
      <trkpt lat="37.828070" lon="-120.250110">
        <ele>903.405</ele>
        <time>2018-12-28T21:55:00Z</time>
      </trkpt>
      <trkpt lat="37.828190" lon="-120.249880">
        <ele>904.908</ele>
        <time>2018-12-28T21:55:20Z</time>
      </trkpt>
      <trkpt lat="37.828310" lon="-120.249660">
        <ele>905.634</ele>
        <time>2018-12-28T21:55:40Z</time>
      </trkpt>
      <trkpt lat="37.828440" lon="-120.249440">
        <ele>906.842</ele>
        <time>2018-12-28T21:56:00Z</time>
      </trkpt>
      <trkpt lat="37.828580" lon="-120.249210">
        <ele>907.657</ele>
        <time>2018-12-28T21:56:20Z</time>
      </trkpt>
      <trkpt lat="37.828690" lon="-120.249060">
        <ele>908.176</ele>
        <time>2018-12-28T21:56:40Z</time>
      </trkpt>
      <trkpt lat="37.828830" lon="-120.248860">
        <ele>909.390</ele>
        <time>2018-12-28T21:57:00Z</time>
      </trkpt>
      <trkpt lat="37.828970" lon="-120.248680">
        <ele>910.016</ele>
        <time>2018-12-28T21:57:20Z</time>
      </trkpt>
      <trkpt lat="37.829080" lon="-120.248530">
        <ele>911.833</ele>
        <time>2018-12-28T21:57:40Z</time>
      </trkpt>
      <trkpt lat="37.829180" lon="-120.248360">
        <ele>913.347</ele>
        <time>2018-12-28T21:58:00Z</time>
      </trkpt>
      <trkpt lat="37.829280" lon="-120.248150">
        <ele>914.476</ele>
        <time>2018-12-28T21:58:20Z</time>
      </trkpt>
      <trkpt lat="37.829380" lon="-120.247980">
        <ele>916.690</ele>
        <time>2018-12-28T21:58:40Z</time>
      </trkpt>
      <trkpt lat="37.829480" lon="-120.247800">
        <ele>918.619</ele>
        <time>2018-12-28T21:59:00Z</time>
      </trkpt>
      <trkpt lat="37.829560" lon="-120.247670">
        <ele>919.008</ele>
        <time>2018-12-28T21:59:20Z</time>
      </trkpt>
      <trkpt lat="37.829660" lon="-120.247540">
        <ele>920.830</ele>
        <time>2018-12-28T21:59:40Z</time>
      </trkpt>
      <trkpt lat="37.829740" lon="-120.247440">
        <ele>921.738</ele>
        <time>2018-12-28T22:00:00Z</time>
      </trkpt>
      <trkpt lat="37.829810" lon="-120.247350">
        <ele>921.983</ele>
        <time>2018-12-28T22:00:20Z</time>
      </trkpt>
      <trkpt lat="37.829910" lon="-120.247250">
        <ele>923.482</ele>
        <time>2018-12-28T22:00:40Z</time>
      </trkpt>
      <trkpt lat="37.830000" lon="-120.247170">
        <ele>924.646</ele>
        <time>2018-12-28T22:01:00Z</time>
      </trkpt>
      <trkpt lat="37.830030" lon="-120.247130">
        <ele>924.762</ele>
        <time>2018-12-28T22:01:20Z</time>
      </trkpt>
      <trkpt lat="37.830130" lon="-120.247040">
        <ele>925.099</ele>
        <time>2018-12-28T22:01:40Z</time>
      </trkpt>
      <trkpt lat="37.830260" lon="-120.246950">
        <ele>926.553</ele>
        <time>2018-12-28T22:02:00Z</time>
      </trkpt>
      <trkpt lat="37.830390" lon="-120.246870">
        <ele>927.468</ele>
        <time>2018-12-28T22:02:20Z</time>
      </trkpt>
      <trkpt lat="37.830490" lon="-120.246810">
        <ele>928.042</ele>
        <time>2018-12-28T22:02:40Z</time>
      </trkpt>
      <trkpt lat="37.830560" lon="-120.246750">
        <ele>928.626</ele>
        <time>2018-12-28T22:03:00Z</time>
      </trkpt>
      <trkpt lat="37.830640" lon="-120.246690">
        <ele>929.008</ele>
        <time>2018-12-28T22:03:20Z</time>
      </trkpt>
      <trkpt lat="37.830730" lon="-120.246600">
        <ele>929.389</ele>
        <time>2018-12-28T22:03:40Z</time>
      </trkpt>
      <trkpt lat="37.830840" lon="-120.246500">
        <ele>930.187</ele>
        <time>2018-12-28T22:04:00Z</time>
      </trkpt>
      <trkpt lat="37.831030" lon="-120.246280">
        <ele>931.022</ele>
        <time>2018-12-28T22:04:20Z</time>
      </trkpt>
      <trkpt lat="37.831220" lon="-120.246060">
        <ele>932.971</ele>
        <time>2018-12-28T22:04:40Z</time>
      </trkpt>
      <trkpt lat="37.831410" lon="-120.245830">
        <ele>935.735</ele>
        <time>2018-12-28T22:05:00Z</time>
      </trkpt>
      <trkpt lat="37.831900" lon="-120.245120">
        <ele>941.581</ele>
        <time>2018-12-28T22:05:20Z</time>
      </trkpt>
      <trkpt lat="37.832050" lon="-120.244910">
        <ele>940.798</ele>
        <time>2018-12-28T22:05:40Z</time>
      </trkpt>
      <trkpt lat="37.832160" lon="-120.244740">
        <ele>939.322</ele>
        <time>2018-12-28T22:06:00Z</time>
      </trkpt>
      <trkpt lat="37.832250" lon="-120.244570">
        <ele>937.395</ele>
        <time>2018-12-28T22:06:20Z</time>
      </trkpt>
      <trkpt lat="37.832320" lon="-120.244430">
        <ele>936.149</ele>
        <time>2018-12-28T22:06:40Z</time>
      </trkpt>
      <trkpt lat="37.832370" lon="-120.244320">
        <ele>934.923</ele>
        <time>2018-12-28T22:07:00Z</time>
      </trkpt>
      <trkpt lat="37.832410" lon="-120.244220">
        <ele>934.208</ele>
        <time>2018-12-28T22:07:20Z</time>
      </trkpt>
      <trkpt lat="37.832430" lon="-120.244130">
        <ele>933.862</ele>
        <time>2018-12-28T22:07:40Z</time>
      </trkpt>
      <trkpt lat="37.832450" lon="-120.244020">
        <ele>933.440</ele>
        <time>2018-12-28T22:08:00Z</time>
      </trkpt>
      <trkpt lat="37.832470" lon="-120.243880">
        <ele>931.855</ele>
        <time>2018-12-28T22:08:20Z</time>
      </trkpt>
      <trkpt lat="37.832490" lon="-120.243740">
        <ele>930.364</ele>
        <time>2018-12-28T22:08:40Z</time>
      </trkpt>
      <trkpt lat="37.832520" lon="-120.243640">
        <ele>929.948</ele>
        <time>2018-12-28T22:09:00Z</time>
      </trkpt>
      <trkpt lat="37.832550" lon="-120.243550">
        <ele>929.674</ele>
        <time>2018-12-28T22:09:20Z</time>
      </trkpt>
      <trkpt lat="37.832590" lon="-120.243460">
        <ele>929.351</ele>
        <time>2018-12-28T22:09:40Z</time>
      </trkpt>
      <trkpt lat="37.832640" lon="-120.243370">
        <ele>928.965</ele>
        <time>2018-12-28T22:10:00Z</time>
      </trkpt>
      <trkpt lat="37.832710" lon="-120.243280">
        <ele>928.026</ele>
        <time>2018-12-28T22:10:20Z</time>
      </trkpt>
      <trkpt lat="37.832820" lon="-120.243170">
        <ele>927.347</ele>
        <time>2018-12-28T22:10:40Z</time>
      </trkpt>
      <trkpt lat="37.832920" lon="-120.243070">
        <ele>926.111</ele>
        <time>2018-12-28T22:11:00Z</time>
      </trkpt>
      <trkpt lat="37.833150" lon="-120.242870">
        <ele>922.908</ele>
        <time>2018-12-28T22:11:20Z</time>
      </trkpt>
      <trkpt lat="37.833610" lon="-120.242430">
        <ele>916.725</ele>
        <time>2018-12-28T22:11:40Z</time>
      </trkpt>
      <trkpt lat="37.834190" lon="-120.241860">
        <ele>912.153</ele>
        <time>2018-12-28T22:12:00Z</time>
      </trkpt>
      <trkpt lat="37.834450" lon="-120.241600">
        <ele>912.228</ele>
        <time>2018-12-28T22:12:20Z</time>
      </trkpt>
      <trkpt lat="37.834560" lon="-120.241480">
        <ele>911.677</ele>
        <time>2018-12-28T22:12:40Z</time>
      </trkpt>
      <trkpt lat="37.834630" lon="-120.241370">
        <ele>910.931</ele>
        <time>2018-12-28T22:13:00Z</time>
      </trkpt>
      <trkpt lat="37.834690" lon="-120.241280">
        <ele>910.657</ele>
        <time>2018-12-28T22:13:20Z</time>
      </trkpt>
      <trkpt lat="37.834760" lon="-120.241140">
        <ele>910.064</ele>
        <time>2018-12-28T22:13:40Z</time>
      </trkpt>
      <trkpt lat="37.834840" lon="-120.240960">
        <ele>909.058</ele>
        <time>2018-12-28T22:14:00Z</time>
      </trkpt>
      <trkpt lat="37.835010" lon="-120.240580">
        <ele>906.152</ele>
        <time>2018-12-28T22:14:20Z</time>
      </trkpt>
      <trkpt lat="37.835260" lon="-120.240020">
        <ele>904.153</ele>
        <time>2018-12-28T22:14:40Z</time>
      </trkpt>
      <trkpt lat="37.835440" lon="-120.239630">
        <ele>902.808</ele>
        <time>2018-12-28T22:15:00Z</time>
      </trkpt>
      <trkpt lat="37.835570" lon="-120.239340">
        <ele>901.708</ele>
        <time>2018-12-28T22:15:20Z</time>
      </trkpt>
      <trkpt lat="37.835640" lon="-120.239210">
        <ele>901.248</ele>
        <time>2018-12-28T22:15:40Z</time>
      </trkpt>
      <trkpt lat="37.835700" lon="-120.239090">
        <ele>901.396</ele>
        <time>2018-12-28T22:16:00Z</time>
      </trkpt>
      <trkpt lat="37.835740" lon="-120.239020">
        <ele>901.581</ele>
        <time>2018-12-28T22:16:20Z</time>
      </trkpt>
      <trkpt lat="37.835800" lon="-120.238930">
        <ele>901.120</ele>
        <time>2018-12-28T22:16:40Z</time>
      </trkpt>
      <trkpt lat="37.836020" lon="-120.238570">
        <ele>900.134</ele>
        <time>2018-12-28T22:17:00Z</time>
      </trkpt>
      <trkpt lat="37.836150" lon="-120.238360">
        <ele>899.290</ele>
        <time>2018-12-28T22:17:20Z</time>
      </trkpt>
      <trkpt lat="37.836290" lon="-120.238110">
        <ele>899.067</ele>
        <time>2018-12-28T22:17:40Z</time>
      </trkpt>
      <trkpt lat="37.836360" lon="-120.237960">
        <ele>898.321</ele>
        <time>2018-12-28T22:18:00Z</time>
      </trkpt>
      <trkpt lat="37.836400" lon="-120.237870">
        <ele>897.899</ele>
        <time>2018-12-28T22:18:20Z</time>
      </trkpt>
      <trkpt lat="37.836430" lon="-120.237800">
        <ele>897.607</ele>
        <time>2018-12-28T22:18:40Z</time>
      </trkpt>
      <trkpt lat="37.836460" lon="-120.237740">
        <ele>897.327</ele>
        <time>2018-12-28T22:19:00Z</time>
      </trkpt>
      <trkpt lat="37.836480" lon="-120.237650">
        <ele>897.508</ele>
        <time>2018-12-28T22:19:20Z</time>
      </trkpt>
      <trkpt lat="37.836510" lon="-120.237560">
        <ele>896.212</ele>
        <time>2018-12-28T22:19:40Z</time>
      </trkpt>
      <trkpt lat="37.836530" lon="-120.237440">
        <ele>894.770</ele>
        <time>2018-12-28T22:20:00Z</time>
      </trkpt>
      <trkpt lat="37.836550" lon="-120.237320">
        <ele>893.585</ele>
        <time>2018-12-28T22:20:20Z</time>
      </trkpt>
      <trkpt lat="37.836560" lon="-120.237210">
        <ele>892.764</ele>
        <time>2018-12-28T22:20:40Z</time>
      </trkpt>
      <trkpt lat="37.836560" lon="-120.237000">
        <ele>891.528</ele>
        <time>2018-12-28T22:21:00Z</time>
      </trkpt>
      <trkpt lat="37.836570" lon="-120.236710">
        <ele>891.184</ele>
        <time>2018-12-28T22:21:20Z</time>
      </trkpt>
      <trkpt lat="37.836570" lon="-120.236360">
        <ele>891.761</ele>
        <time>2018-12-28T22:21:40Z</time>
      </trkpt>
      <trkpt lat="37.836580" lon="-120.236200">
        <ele>891.765</ele>
        <time>2018-12-28T22:22:00Z</time>
      </trkpt>
      <trkpt lat="37.836600" lon="-120.236040">
        <ele>891.349</ele>
        <time>2018-12-28T22:22:20Z</time>
      </trkpt>
      <trkpt lat="37.836630" lon="-120.235920">
        <ele>891.102</ele>
        <time>2018-12-28T22:22:40Z</time>
      </trkpt>
      <trkpt lat="37.836680" lon="-120.235690">
        <ele>889.922</ele>
        <time>2018-12-28T22:23:00Z</time>
      </trkpt>
      <trkpt lat="37.836760" lon="-120.235410">
        <ele>886.008</ele>
        <time>2018-12-28T22:23:20Z</time>
      </trkpt>
      <trkpt lat="37.836830" lon="-120.235170">
        <ele>884.857</ele>
        <time>2018-12-28T22:23:40Z</time>
      </trkpt>
      <trkpt lat="37.837450" lon="-120.233570">
        <ele>874.075</ele>
        <time>2018-12-28T22:24:00Z</time>
      </trkpt>
      <trkpt lat="37.837620" lon="-120.233150">
        <ele>871.950</ele>
        <time>2018-12-28T22:24:20Z</time>
      </trkpt>
      <trkpt lat="37.837730" lon="-120.232840">
        <ele>870.789</ele>
        <time>2018-12-28T22:24:40Z</time>
      </trkpt>
      <trkpt lat="37.837840" lon="-120.232560">
        <ele>869.543</ele>
        <time>2018-12-28T22:25:00Z</time>
      </trkpt>
      <trkpt lat="37.837920" lon="-120.232360">
        <ele>868.989</ele>
        <time>2018-12-28T22:25:20Z</time>
      </trkpt>
      <trkpt lat="37.837970" lon="-120.232250">
        <ele>868.356</ele>
        <time>2018-12-28T22:25:40Z</time>
      </trkpt>
      <trkpt lat="37.838040" lon="-120.232110">
        <ele>867.660</ele>
        <time>2018-12-28T22:26:00Z</time>
      </trkpt>
      <trkpt lat="37.838210" lon="-120.231760">
        <ele>866.985</ele>
        <time>2018-12-28T22:26:20Z</time>
      </trkpt>
      <trkpt lat="37.838390" lon="-120.231450">
        <ele>865.789</ele>
        <time>2018-12-28T22:26:40Z</time>
      </trkpt>
      <trkpt lat="37.838520" lon="-120.231160">
        <ele>864.617</ele>
        <time>2018-12-28T22:27:00Z</time>
      </trkpt>
      <trkpt lat="37.838930" lon="-120.230360">
        <ele>862.508</ele>
        <time>2018-12-28T22:27:20Z</time>
      </trkpt>
      <trkpt lat="37.839070" lon="-120.230100">
        <ele>862.571</ele>
        <time>2018-12-28T22:27:40Z</time>
      </trkpt>
      <trkpt lat="37.839170" lon="-120.229910">
        <ele>862.929</ele>
        <time>2018-12-28T22:28:00Z</time>
      </trkpt>
      <trkpt lat="37.839280" lon="-120.229710">
        <ele>862.744</ele>
        <time>2018-12-28T22:28:20Z</time>
      </trkpt>
      <trkpt lat="37.839380" lon="-120.229540">
        <ele>861.423</ele>
        <time>2018-12-28T22:28:40Z</time>
      </trkpt>
      <trkpt lat="37.839460" lon="-120.229380">
        <ele>860.597</ele>
        <time>2018-12-28T22:29:00Z</time>
      </trkpt>
      <trkpt lat="37.839490" lon="-120.229290">
        <ele>860.333</ele>
        <time>2018-12-28T22:29:20Z</time>
      </trkpt>
      <trkpt lat="37.839500" lon="-120.229260">
        <ele>860.270</ele>
        <time>2018-12-28T22:29:40Z</time>
      </trkpt>
      <trkpt lat="37.839540" lon="-120.229160">
        <ele>860.094</ele>
        <time>2018-12-28T22:30:00Z</time>
      </trkpt>
      <trkpt lat="37.839560" lon="-120.229050">
        <ele>860.195</ele>
        <time>2018-12-28T22:30:20Z</time>
      </trkpt>
      <trkpt lat="37.839590" lon="-120.228940">
        <ele>860.149</ele>
        <time>2018-12-28T22:30:40Z</time>
      </trkpt>
      <trkpt lat="37.839610" lon="-120.228810">
        <ele>860.223</ele>
        <time>2018-12-28T22:31:00Z</time>
      </trkpt>
      <trkpt lat="37.839620" lon="-120.228670">
        <ele>860.508</ele>
        <time>2018-12-28T22:31:20Z</time>
      </trkpt>
      <trkpt lat="37.839640" lon="-120.228480">
        <ele>861.092</ele>
        <time>2018-12-28T22:31:40Z</time>
      </trkpt>
      <trkpt lat="37.839670" lon="-120.228160">
        <ele>862.220</ele>
        <time>2018-12-28T22:32:00Z</time>
      </trkpt>
      <trkpt lat="37.839700" lon="-120.227890">
        <ele>861.965</ele>
        <time>2018-12-28T22:32:20Z</time>
      </trkpt>
      <trkpt lat="37.839730" lon="-120.227520">
        <ele>861.794</ele>
        <time>2018-12-28T22:32:40Z</time>
      </trkpt>
      <trkpt lat="37.839750" lon="-120.227300">
        <ele>861.648</ele>
        <time>2018-12-28T22:33:00Z</time>
      </trkpt>
      <trkpt lat="37.839830" lon="-120.226580">
        <ele>860.824</ele>
        <time>2018-12-28T22:33:20Z</time>
      </trkpt>
      <trkpt lat="37.839860" lon="-120.226320">
        <ele>860.761</ele>
        <time>2018-12-28T22:33:40Z</time>
      </trkpt>
      <trkpt lat="37.839920" lon="-120.225970">
        <ele>860.415</ele>
        <time>2018-12-28T22:34:00Z</time>
      </trkpt>
      <trkpt lat="37.839950" lon="-120.225770">
        <ele>862.234</ele>
        <time>2018-12-28T22:34:20Z</time>
      </trkpt>
      <trkpt lat="37.839960" lon="-120.225700">
        <ele>862.855</ele>
        <time>2018-12-28T22:34:40Z</time>
      </trkpt>
      <trkpt lat="37.839970" lon="-120.225630">
        <ele>862.910</ele>
        <time>2018-12-28T22:35:00Z</time>
      </trkpt>
      <trkpt lat="37.839970" lon="-120.225550">
        <ele>863.208</ele>
        <time>2018-12-28T22:35:20Z</time>
      </trkpt>
      <trkpt lat="37.839970" lon="-120.225360">
        <ele>863.826</ele>
        <time>2018-12-28T22:35:40Z</time>
      </trkpt>
      <trkpt lat="37.839960" lon="-120.225220">
        <ele>864.324</ele>
        <time>2018-12-28T22:36:00Z</time>
      </trkpt>
      <trkpt lat="37.839940" lon="-120.225050">
        <ele>864.549</ele>
        <time>2018-12-28T22:36:20Z</time>
      </trkpt>
      <trkpt lat="37.839900" lon="-120.224860">
        <ele>864.328</ele>
        <time>2018-12-28T22:36:40Z</time>
      </trkpt>
      <trkpt lat="37.839860" lon="-120.224600">
        <ele>865.922</ele>
        <time>2018-12-28T22:37:00Z</time>
      </trkpt>
      <trkpt lat="37.839820" lon="-120.224390">
        <ele>867.748</ele>
        <time>2018-12-28T22:37:20Z</time>
      </trkpt>
      <trkpt lat="37.839800" lon="-120.224260">
        <ele>868.755</ele>
        <time>2018-12-28T22:37:40Z</time>
      </trkpt>
      <trkpt lat="37.839770" lon="-120.224140">
        <ele>870.079</ele>
        <time>2018-12-28T22:38:00Z</time>
      </trkpt>
      <trkpt lat="37.839750" lon="-120.224020">
        <ele>871.016</ele>
        <time>2018-12-28T22:38:20Z</time>
      </trkpt>
      <trkpt lat="37.839720" lon="-120.223930">
        <ele>871.776</ele>
        <time>2018-12-28T22:38:40Z</time>
      </trkpt>
      <trkpt lat="37.839690" lon="-120.223830">
        <ele>872.313</ele>
        <time>2018-12-28T22:39:00Z</time>
      </trkpt>
      <trkpt lat="37.839660" lon="-120.223760">
        <ele>873.008</ele>
        <time>2018-12-28T22:39:20Z</time>
      </trkpt>
      <trkpt lat="37.839620" lon="-120.223680">
        <ele>873.944</ele>
        <time>2018-12-28T22:39:40Z</time>
      </trkpt>
      <trkpt lat="37.839570" lon="-120.223600">
        <ele>874.742</ele>
        <time>2018-12-28T22:40:00Z</time>
      </trkpt>
      <trkpt lat="37.839450" lon="-120.223380">
        <ele>876.127</ele>
        <time>2018-12-28T22:40:20Z</time>
      </trkpt>
      <trkpt lat="37.839120" lon="-120.222850">
        <ele>881.446</ele>
        <time>2018-12-28T22:40:40Z</time>
      </trkpt>
      <trkpt lat="37.838950" lon="-120.222570">
        <ele>883.770</ele>
        <time>2018-12-28T22:41:00Z</time>
      </trkpt>
      <trkpt lat="37.838810" lon="-120.222350">
        <ele>885.616</ele>
        <time>2018-12-28T22:41:20Z</time>
      </trkpt>
      <trkpt lat="37.838720" lon="-120.222220">
        <ele>887.593</ele>
        <time>2018-12-28T22:41:40Z</time>
      </trkpt>
      <trkpt lat="37.838630" lon="-120.222110">
        <ele>888.787</ele>
        <time>2018-12-28T22:42:00Z</time>
      </trkpt>
      <trkpt lat="37.838540" lon="-120.222000">
        <ele>889.772</ele>
        <time>2018-12-28T22:42:20Z</time>
      </trkpt>
      <trkpt lat="37.838450" lon="-120.221900">
        <ele>890.913</ele>
        <time>2018-12-28T22:42:40Z</time>
      </trkpt>
      <trkpt lat="37.838370" lon="-120.221830">
        <ele>891.614</ele>
        <time>2018-12-28T22:43:00Z</time>
      </trkpt>
      <trkpt lat="37.838310" lon="-120.221780">
        <ele>892.008</ele>
        <time>2018-12-28T22:43:20Z</time>
      </trkpt>
      <trkpt lat="37.838280" lon="-120.221750">
        <ele>892.560</ele>
        <time>2018-12-28T22:43:40Z</time>
      </trkpt>
      <trkpt lat="37.838190" lon="-120.221670">
        <ele>893.438</ele>
        <time>2018-12-28T22:44:00Z</time>
      </trkpt>
      <trkpt lat="37.838110" lon="-120.221620">
        <ele>894.913</ele>
        <time>2018-12-28T22:44:20Z</time>
      </trkpt>
      <trkpt lat="37.838010" lon="-120.221540">
        <ele>895.222</ele>
        <time>2018-12-28T22:44:40Z</time>
      </trkpt>
      <trkpt lat="37.837890" lon="-120.221470">
        <ele>897.246</ele>
        <time>2018-12-28T22:45:00Z</time>
      </trkpt>
      <trkpt lat="37.837780" lon="-120.221410">
        <ele>899.382</ele>
        <time>2018-12-28T22:45:20Z</time>
      </trkpt>
      <trkpt lat="37.837640" lon="-120.221330">
        <ele>899.539</ele>
        <time>2018-12-28T22:45:40Z</time>
      </trkpt>
      <trkpt lat="37.837560" lon="-120.221290">
        <ele>899.843</ele>
        <time>2018-12-28T22:46:00Z</time>
      </trkpt>
      <trkpt lat="37.837480" lon="-120.221260">
        <ele>900.049</ele>
        <time>2018-12-28T22:46:20Z</time>
      </trkpt>
      <trkpt lat="37.837250" lon="-120.221180">
        <ele>903.002</ele>
        <time>2018-12-28T22:46:40Z</time>
      </trkpt>
      <trkpt lat="37.837090" lon="-120.221110">
        <ele>903.922</ele>
        <time>2018-12-28T22:47:00Z</time>
      </trkpt>
      <trkpt lat="37.837000" lon="-120.221070">
        <ele>905.108</ele>
        <time>2018-12-28T22:47:20Z</time>
      </trkpt>
      <trkpt lat="37.836900" lon="-120.221010">
        <ele>905.357</ele>
        <time>2018-12-28T22:47:40Z</time>
      </trkpt>
      <trkpt lat="37.836800" lon="-120.220950">
        <ele>905.525</ele>
        <time>2018-12-28T22:48:00Z</time>
      </trkpt>
      <trkpt lat="37.836700" lon="-120.220880">
        <ele>907.570</ele>
        <time>2018-12-28T22:48:20Z</time>
      </trkpt>
      <trkpt lat="37.836620" lon="-120.220800">
        <ele>907.989</ele>
        <time>2018-12-28T22:48:40Z</time>
      </trkpt>
      <trkpt lat="37.836550" lon="-120.220740">
        <ele>907.053</ele>
        <time>2018-12-28T22:49:00Z</time>
      </trkpt>
      <trkpt lat="37.836480" lon="-120.220680">
        <ele>907.159</ele>
        <time>2018-12-28T22:49:20Z</time>
      </trkpt>
      <trkpt lat="37.836410" lon="-120.220600">
        <ele>908.846</ele>
        <time>2018-12-28T22:49:40Z</time>
      </trkpt>
      <trkpt lat="37.836290" lon="-120.220460">
        <ele>908.550</ele>
        <time>2018-12-28T22:50:00Z</time>
      </trkpt>
      <trkpt lat="37.836100" lon="-120.220190">
        <ele>909.516</ele>
        <time>2018-12-28T22:50:20Z</time>
      </trkpt>
      <trkpt lat="37.835990" lon="-120.220010">
        <ele>908.476</ele>
        <time>2018-12-28T22:50:40Z</time>
      </trkpt>
      <trkpt lat="37.835890" lon="-120.219840">
        <ele>907.113</ele>
        <time>2018-12-28T22:51:00Z</time>
      </trkpt>
      <trkpt lat="37.835840" lon="-120.219730">
        <ele>908.008</ele>
        <time>2018-12-28T22:51:20Z</time>
      </trkpt>
      <trkpt lat="37.835800" lon="-120.219640">
        <ele>908.734</ele>
        <time>2018-12-28T22:51:40Z</time>
      </trkpt>
      <trkpt lat="37.835760" lon="-120.219520">
        <ele>908.742</ele>
        <time>2018-12-28T22:52:00Z</time>
      </trkpt>
      <trkpt lat="37.835710" lon="-120.219320">
        <ele>907.497</ele>
        <time>2018-12-28T22:52:20Z</time>
      </trkpt>
      <trkpt lat="37.835670" lon="-120.219190">
        <ele>906.146</ele>
        <time>2018-12-28T22:52:40Z</time>
      </trkpt>
      <trkpt lat="37.835650" lon="-120.219080">
        <ele>905.360</ele>
        <time>2018-12-28T22:53:00Z</time>
      </trkpt>
      <trkpt lat="37.835630" lon="-120.218930">
        <ele>904.596</ele>
        <time>2018-12-28T22:53:20Z</time>
      </trkpt>
      <trkpt lat="37.835600" lon="-120.218540">
        <ele>903.293</ele>
        <time>2018-12-28T22:53:40Z</time>
      </trkpt>
      <trkpt lat="37.835570" lon="-120.218210">
        <ele>899.447</ele>
        <time>2018-12-28T22:54:00Z</time>
      </trkpt>
      <trkpt lat="37.835540" lon="-120.217800">
        <ele>901.016</ele>
        <time>2018-12-28T22:54:20Z</time>
      </trkpt>
      <trkpt lat="37.835480" lon="-120.217150">
        <ele>896.576</ele>
        <time>2018-12-28T22:54:40Z</time>
      </trkpt>
      <trkpt lat="37.835420" lon="-120.216450">
        <ele>891.913</ele>
        <time>2018-12-28T22:55:00Z</time>
      </trkpt>
      <trkpt lat="37.835400" lon="-120.216140">
        <ele>889.708</ele>
        <time>2018-12-28T22:55:20Z</time>
      </trkpt>
      <trkpt lat="37.835390" lon="-120.215910">
        <ele>888.214</ele>
        <time>2018-12-28T22:55:40Z</time>
      </trkpt>
      <trkpt lat="37.835390" lon="-120.215700">
        <ele>887.022</ele>
        <time>2018-12-28T22:56:00Z</time>
      </trkpt>
      <trkpt lat="37.835390" lon="-120.215490">
        <ele>885.677</ele>
        <time>2018-12-28T22:56:20Z</time>
      </trkpt>
      <trkpt lat="37.835400" lon="-120.215290">
        <ele>884.576</ele>
        <time>2018-12-28T22:56:40Z</time>
      </trkpt>
      <trkpt lat="37.835410" lon="-120.215110">
        <ele>883.740</ele>
        <time>2018-12-28T22:57:00Z</time>
      </trkpt>
      <trkpt lat="37.835430" lon="-120.214940">
        <ele>883.176</ele>
        <time>2018-12-28T22:57:20Z</time>
      </trkpt>
      <trkpt lat="37.835450" lon="-120.214790">
        <ele>882.613</ele>
        <time>2018-12-28T22:57:40Z</time>
      </trkpt>
      <trkpt lat="37.835490" lon="-120.214560">
        <ele>881.997</ele>
        <time>2018-12-28T22:58:00Z</time>
      </trkpt>
      <trkpt lat="37.835530" lon="-120.214380">
        <ele>881.266</ele>
        <time>2018-12-28T22:58:20Z</time>
      </trkpt>
      <trkpt lat="37.835570" lon="-120.214220">
        <ele>879.529</ele>
        <time>2018-12-28T22:58:40Z</time>
      </trkpt>
      <trkpt lat="37.835630" lon="-120.214030">
        <ele>876.621</ele>
        <time>2018-12-28T22:59:00Z</time>
      </trkpt>
      <trkpt lat="37.835690" lon="-120.213860">
        <ele>876.508</ele>
        <time>2018-12-28T22:59:20Z</time>
      </trkpt>
      <trkpt lat="37.835760" lon="-120.213680">
        <ele>876.529</ele>
        <time>2018-12-28T22:59:40Z</time>
      </trkpt>
      <trkpt lat="37.835820" lon="-120.213570">
        <ele>875.387</ele>
        <time>2018-12-28T23:00:00Z</time>
      </trkpt>
      <trkpt lat="37.835890" lon="-120.213440">
        <ele>873.392</ele>
        <time>2018-12-28T23:00:20Z</time>
      </trkpt>
      <trkpt lat="37.836010" lon="-120.213240">
        <ele>873.751</ele>
        <time>2018-12-28T23:00:40Z</time>
      </trkpt>
      <trkpt lat="37.836300" lon="-120.212800">
        <ele>871.075</ele>
        <time>2018-12-28T23:01:00Z</time>
      </trkpt>
      <trkpt lat="37.836510" lon="-120.212500">
        <ele>868.841</ele>
        <time>2018-12-28T23:01:20Z</time>
      </trkpt>
      <trkpt lat="37.836730" lon="-120.212180">
        <ele>867.628</ele>
        <time>2018-12-28T23:01:40Z</time>
      </trkpt>
      <trkpt lat="37.837230" lon="-120.211480">
        <ele>864.062</ele>
        <time>2018-12-28T23:02:00Z</time>
      </trkpt>
      <trkpt lat="37.837460" lon="-120.211140">
        <ele>862.327</ele>
        <time>2018-12-28T23:02:20Z</time>
      </trkpt>
      <trkpt lat="37.837620" lon="-120.210910">
        <ele>861.868</ele>
        <time>2018-12-28T23:02:40Z</time>
      </trkpt>
      <trkpt lat="37.838020" lon="-120.210310">
        <ele>861.714</ele>
        <time>2018-12-28T23:03:00Z</time>
      </trkpt>
      <trkpt lat="37.838210" lon="-120.210040">
        <ele>859.308</ele>
        <time>2018-12-28T23:03:20Z</time>
      </trkpt>
      <trkpt lat="37.838340" lon="-120.209820">
        <ele>858.535</ele>
        <time>2018-12-28T23:03:40Z</time>
      </trkpt>
      <trkpt lat="37.838440" lon="-120.209630">
        <ele>857.123</ele>
        <time>2018-12-28T23:04:00Z</time>
      </trkpt>
      <trkpt lat="37.838540" lon="-120.209420">
        <ele>860.118</ele>
        <time>2018-12-28T23:04:20Z</time>
      </trkpt>
      <trkpt lat="37.838620" lon="-120.209250">
        <ele>858.917</ele>
        <time>2018-12-28T23:04:40Z</time>
      </trkpt>
      <trkpt lat="37.838720" lon="-120.208960">
        <ele>854.551</ele>
        <time>2018-12-28T23:05:00Z</time>
      </trkpt>
      <trkpt lat="37.838780" lon="-120.208720">
        <ele>853.467</ele>
        <time>2018-12-28T23:05:20Z</time>
      </trkpt>
      <trkpt lat="37.838820" lon="-120.208560">
        <ele>854.324</ele>
        <time>2018-12-28T23:05:40Z</time>
      </trkpt>
      <trkpt lat="37.838850" lon="-120.208380">
        <ele>854.158</ele>
        <time>2018-12-28T23:06:00Z</time>
      </trkpt>
      <trkpt lat="37.838870" lon="-120.208220">
        <ele>853.334</ele>
        <time>2018-12-28T23:06:20Z</time>
      </trkpt>
      <trkpt lat="37.838880" lon="-120.208080">
        <ele>851.155</ele>
        <time>2018-12-28T23:06:40Z</time>
      </trkpt>
      <trkpt lat="37.838880" lon="-120.207900">
        <ele>848.010</ele>
        <time>2018-12-28T23:07:00Z</time>
      </trkpt>
      <trkpt lat="37.838860" lon="-120.207700">
        <ele>846.008</ele>
        <time>2018-12-28T23:07:20Z</time>
      </trkpt>
      <trkpt lat="37.838840" lon="-120.207530">
        <ele>844.486</ele>
        <time>2018-12-28T23:07:40Z</time>
      </trkpt>
      <trkpt lat="37.838790" lon="-120.207330">
        <ele>843.684</ele>
        <time>2018-12-28T23:08:00Z</time>
      </trkpt>
      <trkpt lat="37.838720" lon="-120.207110">
        <ele>842.969</ele>
        <time>2018-12-28T23:08:20Z</time>
      </trkpt>
      <trkpt lat="37.838620" lon="-120.206860">
        <ele>839.758</ele>
        <time>2018-12-28T23:08:40Z</time>
      </trkpt>
      <trkpt lat="37.838570" lon="-120.206750">
        <ele>839.472</ele>
        <time>2018-12-28T23:09:00Z</time>
      </trkpt>
      <trkpt lat="37.838540" lon="-120.206690">
        <ele>839.858</ele>
        <time>2018-12-28T23:09:20Z</time>
      </trkpt>
      <trkpt lat="37.838520" lon="-120.206640">
        <ele>840.425</ele>
        <time>2018-12-28T23:09:40Z</time>
      </trkpt>
      <trkpt lat="37.838390" lon="-120.206370">
        <ele>840.799</ele>
        <time>2018-12-28T23:10:00Z</time>
      </trkpt>
      <trkpt lat="37.838300" lon="-120.206200">
        <ele>840.181</ele>
        <time>2018-12-28T23:10:20Z</time>
      </trkpt>
      <trkpt lat="37.838190" lon="-120.206050">
        <ele>841.861</ele>
        <time>2018-12-28T23:10:40Z</time>
      </trkpt>
      <trkpt lat="37.838080" lon="-120.205920">
        <ele>841.717</ele>
        <time>2018-12-28T23:11:00Z</time>
      </trkpt>
      <trkpt lat="37.837930" lon="-120.205770">
        <ele>842.808</ele>
        <time>2018-12-28T23:11:20Z</time>
      </trkpt>
      <trkpt lat="37.837770" lon="-120.205620">
        <ele>843.811</ele>
        <time>2018-12-28T23:11:40Z</time>
      </trkpt>
      <trkpt lat="37.837470" lon="-120.205420">
        <ele>846.439</ele>
        <time>2018-12-28T23:12:00Z</time>
      </trkpt>
      <trkpt lat="37.837090" lon="-120.205170">
        <ele>850.744</ele>
        <time>2018-12-28T23:12:20Z</time>
      </trkpt>
      <trkpt lat="37.836760" lon="-120.204940">
        <ele>852.253</ele>
        <time>2018-12-28T23:12:40Z</time>
      </trkpt>
      <trkpt lat="37.836460" lon="-120.204690">
        <ele>855.387</ele>
        <time>2018-12-28T23:13:00Z</time>
      </trkpt>
      <trkpt lat="37.836210" lon="-120.204480">
        <ele>860.693</ele>
        <time>2018-12-28T23:13:20Z</time>
      </trkpt>
      <trkpt lat="37.835910" lon="-120.204250">
        <ele>863.810</ele>
        <time>2018-12-28T23:13:40Z</time>
      </trkpt>
      <trkpt lat="37.835820" lon="-120.204180">
        <ele>865.634</ele>
        <time>2018-12-28T23:14:00Z</time>
      </trkpt>
      <trkpt lat="37.835500" lon="-120.203940">
        <ele>866.577</ele>
        <time>2018-12-28T23:14:20Z</time>
      </trkpt>
      <trkpt lat="37.835180" lon="-120.203720">
        <ele>868.561</ele>
        <time>2018-12-28T23:14:40Z</time>
      </trkpt>
      <trkpt lat="37.834880" lon="-120.203550">
        <ele>870.127</ele>
        <time>2018-12-28T23:15:00Z</time>
      </trkpt>
      <trkpt lat="37.834450" lon="-120.203330">
        <ele>869.908</ele>
        <time>2018-12-28T23:15:20Z</time>
      </trkpt>
      <trkpt lat="37.834270" lon="-120.203210">
        <ele>871.940</ele>
        <time>2018-12-28T23:15:40Z</time>
      </trkpt>
      <trkpt lat="37.834200" lon="-120.203160">
        <ele>870.658</ele>
        <time>2018-12-28T23:16:00Z</time>
      </trkpt>
      <trkpt lat="37.834090" lon="-120.203070">
        <ele>870.243</ele>
        <time>2018-12-28T23:16:20Z</time>
      </trkpt>
      <trkpt lat="37.834020" lon="-120.203000">
        <ele>871.792</ele>
        <time>2018-12-28T23:16:40Z</time>
      </trkpt>
      <trkpt lat="37.833960" lon="-120.202930">
        <ele>872.416</ele>
        <time>2018-12-28T23:17:00Z</time>
      </trkpt>
      <trkpt lat="37.833890" lon="-120.202830">
        <ele>872.242</ele>
        <time>2018-12-28T23:17:20Z</time>
      </trkpt>
      <trkpt lat="37.833840" lon="-120.202760">
        <ele>873.069</ele>
        <time>2018-12-28T23:17:40Z</time>
      </trkpt>
      <trkpt lat="37.833790" lon="-120.202680">
        <ele>875.263</ele>
        <time>2018-12-28T23:18:00Z</time>
      </trkpt>
      <trkpt lat="37.833760" lon="-120.202630">
        <ele>876.872</ele>
        <time>2018-12-28T23:18:20Z</time>
      </trkpt>
      <trkpt lat="37.833690" lon="-120.202490">
        <ele>875.613</ele>
        <time>2018-12-28T23:18:40Z</time>
      </trkpt>
      <trkpt lat="37.833650" lon="-120.202410">
        <ele>875.514</ele>
        <time>2018-12-28T23:19:00Z</time>
      </trkpt>
      <trkpt lat="37.833590" lon="-120.202310">
        <ele>876.708</ele>
        <time>2018-12-28T23:19:20Z</time>
      </trkpt>
      <trkpt lat="37.833540" lon="-120.202240">
        <ele>877.740</ele>
        <time>2018-12-28T23:19:40Z</time>
      </trkpt>
      <trkpt lat="37.833260" lon="-120.201850">
        <ele>880.988</ele>
        <time>2018-12-28T23:20:00Z</time>
      </trkpt>
      <trkpt lat="37.832460" lon="-120.200690">
        <ele>885.963</ele>
        <time>2018-12-28T23:20:20Z</time>
      </trkpt>
      <trkpt lat="37.832310" lon="-120.200460">
        <ele>888.432</ele>
        <time>2018-12-28T23:20:40Z</time>
      </trkpt>
      <trkpt lat="37.832080" lon="-120.200120">
        <ele>893.316</ele>
        <time>2018-12-28T23:21:00Z</time>
      </trkpt>
      <trkpt lat="37.831890" lon="-120.199840">
        <ele>892.392</ele>
        <time>2018-12-28T23:21:20Z</time>
      </trkpt>
      <trkpt lat="37.831710" lon="-120.199540">
        <ele>895.759</ele>
        <time>2018-12-28T23:21:40Z</time>
      </trkpt>
      <trkpt lat="37.831300" lon="-120.198890">
        <ele>901.823</ele>
        <time>2018-12-28T23:22:00Z</time>
      </trkpt>
      <trkpt lat="37.830920" lon="-120.198340">
        <ele>905.726</ele>
        <time>2018-12-28T23:22:20Z</time>
      </trkpt>
      <trkpt lat="37.830810" lon="-120.198190">
        <ele>905.947</ele>
        <time>2018-12-28T23:22:40Z</time>
      </trkpt>
      <trkpt lat="37.830360" lon="-120.197440">
        <ele>914.911</ele>
        <time>2018-12-28T23:23:00Z</time>
      </trkpt>
      <trkpt lat="37.830070" lon="-120.196950">
        <ele>921.308</ele>
        <time>2018-12-28T23:23:20Z</time>
      </trkpt>
      <trkpt lat="37.829800" lon="-120.196540">
        <ele>920.865</ele>
        <time>2018-12-28T23:23:40Z</time>
      </trkpt>
      <trkpt lat="37.829530" lon="-120.196170">
        <ele>924.253</ele>
        <time>2018-12-28T23:24:00Z</time>
      </trkpt>
      <trkpt lat="37.829170" lon="-120.195690">
        <ele>923.398</ele>
        <time>2018-12-28T23:24:20Z</time>
      </trkpt>
      <trkpt lat="37.828930" lon="-120.195360">
        <ele>921.967</ele>
        <time>2018-12-28T23:24:40Z</time>
      </trkpt>
      <trkpt lat="37.828850" lon="-120.195240">
        <ele>921.981</ele>
        <time>2018-12-28T23:25:00Z</time>
      </trkpt>
      <trkpt lat="37.828790" lon="-120.195140">
        <ele>924.847</ele>
        <time>2018-12-28T23:25:20Z</time>
      </trkpt>
      <trkpt lat="37.828740" lon="-120.195030">
        <ele>924.494</ele>
        <time>2018-12-28T23:25:40Z</time>
      </trkpt>
      <trkpt lat="37.828690" lon="-120.194910">
        <ele>921.598</ele>
        <time>2018-12-28T23:26:00Z</time>
      </trkpt>
      <trkpt lat="37.828590" lon="-120.194680">
        <ele>919.248</ele>
        <time>2018-12-28T23:26:20Z</time>
      </trkpt>
      <trkpt lat="37.828470" lon="-120.194360">
        <ele>922.361</ele>
        <time>2018-12-28T23:26:40Z</time>
      </trkpt>
      <trkpt lat="37.828400" lon="-120.194140">
        <ele>922.217</ele>
        <time>2018-12-28T23:27:00Z</time>
      </trkpt>
      <trkpt lat="37.828350" lon="-120.193970">
        <ele>923.008</ele>
        <time>2018-12-28T23:27:20Z</time>
      </trkpt>
      <trkpt lat="37.828310" lon="-120.193810">
        <ele>923.817</ele>
        <time>2018-12-28T23:27:40Z</time>
      </trkpt>
      <trkpt lat="37.828270" lon="-120.193620">
        <ele>929.385</ele>
        <time>2018-12-28T23:28:00Z</time>
      </trkpt>
      <trkpt lat="37.828210" lon="-120.193310">
        <ele>938.450</ele>
        <time>2018-12-28T23:28:20Z</time>
      </trkpt>
      <trkpt lat="37.828180" lon="-120.193090">
        <ele>941.069</ele>
        <time>2018-12-28T23:28:40Z</time>
      </trkpt>
      <trkpt lat="37.828150" lon="-120.192790">
        <ele>940.863</ele>
        <time>2018-12-28T23:29:00Z</time>
      </trkpt>
      <trkpt lat="37.828030" lon="-120.190930">
        <ele>952.489</ele>
        <time>2018-12-28T23:29:20Z</time>
      </trkpt>
      <trkpt lat="37.828010" lon="-120.190670">
        <ele>956.336</ele>
        <time>2018-12-28T23:29:40Z</time>
      </trkpt>
      <trkpt lat="37.827990" lon="-120.190350">
        <ele>960.380</ele>
        <time>2018-12-28T23:30:00Z</time>
      </trkpt>
      <trkpt lat="37.828000" lon="-120.189980">
        <ele>963.583</ele>
        <time>2018-12-28T23:30:20Z</time>
      </trkpt>
      <trkpt lat="37.828030" lon="-120.189600">
        <ele>965.625</ele>
        <time>2018-12-28T23:30:40Z</time>
      </trkpt>
      <trkpt lat="37.828050" lon="-120.189370">
        <ele>964.817</ele>
        <time>2018-12-28T23:31:00Z</time>
      </trkpt>
      <trkpt lat="37.828100" lon="-120.189070">
        <ele>963.308</ele>
        <time>2018-12-28T23:31:20Z</time>
      </trkpt>
      <trkpt lat="37.828150" lon="-120.188800">
        <ele>962.251</ele>
        <time>2018-12-28T23:31:40Z</time>
      </trkpt>
      <trkpt lat="37.828320" lon="-120.188040">
        <ele>968.749</ele>
        <time>2018-12-28T23:32:00Z</time>
      </trkpt>
      <trkpt lat="37.828490" lon="-120.187320">
        <ele>968.264</ele>
        <time>2018-12-28T23:32:20Z</time>
      </trkpt>
      <trkpt lat="37.828660" lon="-120.186640">
        <ele>967.443</ele>
        <time>2018-12-28T23:32:40Z</time>
      </trkpt>
      <trkpt lat="37.828720" lon="-120.186360">
        <ele>968.767</ele>
        <time>2018-12-28T23:33:00Z</time>
      </trkpt>
      <trkpt lat="37.828770" lon="-120.186090">
        <ele>968.093</ele>
        <time>2018-12-28T23:33:20Z</time>
      </trkpt>
      <trkpt lat="37.828810" lon="-120.185910">
        <ele>967.210</ele>
        <time>2018-12-28T23:33:40Z</time>
      </trkpt>
      <trkpt lat="37.828850" lon="-120.185690">
        <ele>966.214</ele>
        <time>2018-12-28T23:34:00Z</time>
      </trkpt>
      <trkpt lat="37.828870" lon="-120.185490">
        <ele>965.659</ele>
        <time>2018-12-28T23:34:20Z</time>
      </trkpt>
      <trkpt lat="37.828880" lon="-120.185330">
        <ele>965.603</ele>
        <time>2018-12-28T23:34:40Z</time>
      </trkpt>
      <trkpt lat="37.828880" lon="-120.185150">
        <ele>966.023</ele>
        <time>2018-12-28T23:35:00Z</time>
      </trkpt>
      <trkpt lat="37.828890" lon="-120.184940">
        <ele>968.008</ele>
        <time>2018-12-28T23:35:20Z</time>
      </trkpt>
      <trkpt lat="37.828880" lon="-120.184730">
        <ele>968.568</ele>
        <time>2018-12-28T23:35:40Z</time>
      </trkpt>
      <trkpt lat="37.828860" lon="-120.184520">
        <ele>968.226</ele>
        <time>2018-12-28T23:36:00Z</time>
      </trkpt>
      <trkpt lat="37.828830" lon="-120.184330">
        <ele>968.461</ele>
        <time>2018-12-28T23:36:20Z</time>
      </trkpt>
      <trkpt lat="37.828810" lon="-120.184170">
        <ele>969.240</ele>
        <time>2018-12-28T23:36:40Z</time>
      </trkpt>
      <trkpt lat="37.828780" lon="-120.184030">
        <ele>970.884</ele>
        <time>2018-12-28T23:37:00Z</time>
      </trkpt>
      <trkpt lat="37.828730" lon="-120.183820">
        <ele>972.550</ele>
        <time>2018-12-28T23:37:20Z</time>
      </trkpt>
      <trkpt lat="37.828660" lon="-120.183520">
        <ele>971.817</ele>
        <time>2018-12-28T23:37:40Z</time>
      </trkpt>
      <trkpt lat="37.828410" lon="-120.182660">
        <ele>974.751</ele>
        <time>2018-12-28T23:38:00Z</time>
      </trkpt>
      <trkpt lat="37.828190" lon="-120.181870">
        <ele>973.855</ele>
        <time>2018-12-28T23:38:20Z</time>
      </trkpt>
      <trkpt lat="37.827740" lon="-120.180340">
        <ele>972.907</ele>
        <time>2018-12-28T23:38:40Z</time>
      </trkpt>
      <trkpt lat="37.827550" lon="-120.179690">
        <ele>976.217</ele>
        <time>2018-12-28T23:39:00Z</time>
      </trkpt>
      <trkpt lat="37.827430" lon="-120.179270">
        <ele>977.308</ele>
        <time>2018-12-28T23:39:20Z</time>
      </trkpt>
      <trkpt lat="37.827340" lon="-120.179000">
        <ele>981.678</ele>
        <time>2018-12-28T23:39:40Z</time>
      </trkpt>
      <trkpt lat="37.827250" lon="-120.178740">
        <ele>982.546</ele>
        <time>2018-12-28T23:40:00Z</time>
      </trkpt>
      <trkpt lat="37.827160" lon="-120.178500">
        <ele>980.851</ele>
        <time>2018-12-28T23:40:20Z</time>
      </trkpt>
      <trkpt lat="37.827080" lon="-120.178320">
        <ele>980.660</ele>
        <time>2018-12-28T23:40:40Z</time>
      </trkpt>
      <trkpt lat="37.826990" lon="-120.178150">
        <ele>979.344</ele>
        <time>2018-12-28T23:41:00Z</time>
      </trkpt>
      <trkpt lat="37.826890" lon="-120.177920">
        <ele>975.140</ele>
        <time>2018-12-28T23:41:20Z</time>
      </trkpt>
      <trkpt lat="37.826730" lon="-120.177590">
        <ele>975.077</ele>
        <time>2018-12-28T23:41:40Z</time>
      </trkpt>
      <trkpt lat="37.826330" lon="-120.176720">
        <ele>983.981</ele>
        <time>2018-12-28T23:42:00Z</time>
      </trkpt>
      <trkpt lat="37.826090" lon="-120.176220">
        <ele>986.426</ele>
        <time>2018-12-28T23:42:20Z</time>
      </trkpt>
      <trkpt lat="37.825950" lon="-120.175920">
        <ele>986.547</ele>
        <time>2018-12-28T23:42:40Z</time>
      </trkpt>
      <trkpt lat="37.825880" lon="-120.175760">
        <ele>986.611</ele>
        <time>2018-12-28T23:43:00Z</time>
      </trkpt>
      <trkpt lat="37.825820" lon="-120.175600">
        <ele>985.708</ele>
        <time>2018-12-28T23:43:20Z</time>
      </trkpt>
      <trkpt lat="37.825750" lon="-120.175400">
        <ele>983.295</ele>
        <time>2018-12-28T23:43:40Z</time>
      </trkpt>
      <trkpt lat="37.825690" lon="-120.175250">
        <ele>980.223</ele>
        <time>2018-12-28T23:44:00Z</time>
      </trkpt>
      <trkpt lat="37.825650" lon="-120.175090">
        <ele>977.978</ele>
        <time>2018-12-28T23:44:20Z</time>
      </trkpt>
      <trkpt lat="37.825600" lon="-120.174900">
        <ele>975.967</ele>
        <time>2018-12-28T23:44:40Z</time>
      </trkpt>
      <trkpt lat="37.825550" lon="-120.174680">
        <ele>974.581</ele>
        <time>2018-12-28T23:45:00Z</time>
      </trkpt>
      <trkpt lat="37.825490" lon="-120.174410">
        <ele>973.327</ele>
        <time>2018-12-28T23:45:20Z</time>
      </trkpt>
      <trkpt lat="37.825350" lon="-120.173730">
        <ele>971.014</ele>
        <time>2018-12-28T23:45:40Z</time>
      </trkpt>
      <trkpt lat="37.825250" lon="-120.173250">
        <ele>969.248</ele>
        <time>2018-12-28T23:46:00Z</time>
      </trkpt>
      <trkpt lat="37.825180" lon="-120.172970">
        <ele>966.569</ele>
        <time>2018-12-28T23:46:20Z</time>
      </trkpt>
      <trkpt lat="37.825100" lon="-120.172690">
        <ele>963.804</ele>
        <time>2018-12-28T23:46:40Z</time>
      </trkpt>
      <trkpt lat="37.825040" lon="-120.172500">
        <ele>962.124</ele>
        <time>2018-12-28T23:47:00Z</time>
      </trkpt>
      <trkpt lat="37.824950" lon="-120.172280">
        <ele>960.408</ele>
        <time>2018-12-28T23:47:20Z</time>
      </trkpt>
      <trkpt lat="37.824900" lon="-120.172140">
        <ele>960.089</ele>
        <time>2018-12-28T23:47:40Z</time>
      </trkpt>
      <trkpt lat="37.824820" lon="-120.171960">
        <ele>959.837</ele>
        <time>2018-12-28T23:48:00Z</time>
      </trkpt>
      <trkpt lat="37.824640" lon="-120.171610">
        <ele>957.712</ele>
        <time>2018-12-28T23:48:20Z</time>
      </trkpt>
      <trkpt lat="37.824490" lon="-120.171310">
        <ele>955.911</ele>
        <time>2018-12-28T23:48:40Z</time>
      </trkpt>
      <trkpt lat="37.824300" lon="-120.170930">
        <ele>956.435</ele>
        <time>2018-12-28T23:49:00Z</time>
      </trkpt>
      <trkpt lat="37.823970" lon="-120.170270">
        <ele>963.691</ele>
        <time>2018-12-28T23:49:20Z</time>
      </trkpt>
      <trkpt lat="37.823740" lon="-120.169800">
        <ele>965.498</ele>
        <time>2018-12-28T23:49:40Z</time>
      </trkpt>
      <trkpt lat="37.823630" lon="-120.169580">
        <ele>964.442</ele>
        <time>2018-12-28T23:50:00Z</time>
      </trkpt>
      <trkpt lat="37.823570" lon="-120.169460">
        <ele>963.734</ele>
        <time>2018-12-28T23:50:20Z</time>
      </trkpt>
      <trkpt lat="37.823500" lon="-120.169290">
        <ele>962.355</ele>
        <time>2018-12-28T23:50:40Z</time>
      </trkpt>
      <trkpt lat="37.823420" lon="-120.169120">
        <ele>959.010</ele>
        <time>2018-12-28T23:51:00Z</time>
      </trkpt>
      <trkpt lat="37.823320" lon="-120.168850">
        <ele>953.408</ele>
        <time>2018-12-28T23:51:20Z</time>
      </trkpt>
      <trkpt lat="37.823240" lon="-120.168600">
        <ele>949.296</ele>
        <time>2018-12-28T23:51:40Z</time>
      </trkpt>
      <trkpt lat="37.823160" lon="-120.168340">
        <ele>945.044</ele>
        <time>2018-12-28T23:52:00Z</time>
      </trkpt>
      <trkpt lat="37.823100" lon="-120.168110">
        <ele>940.989</ele>
        <time>2018-12-28T23:52:20Z</time>
      </trkpt>
      <trkpt lat="37.823040" lon="-120.167870">
        <ele>936.418</ele>
        <time>2018-12-28T23:52:40Z</time>
      </trkpt>
      <trkpt lat="37.822970" lon="-120.167550">
        <ele>931.122</ele>
        <time>2018-12-28T23:53:00Z</time>
      </trkpt>
      <trkpt lat="37.822890" lon="-120.167200">
        <ele>928.418</ele>
        <time>2018-12-28T23:53:20Z</time>
      </trkpt>
      <trkpt lat="37.822710" lon="-120.166380">
        <ele>927.395</ele>
        <time>2018-12-28T23:53:40Z</time>
      </trkpt>
      <trkpt lat="37.822440" lon="-120.165190">
        <ele>924.859</ele>
        <time>2018-12-28T23:54:00Z</time>
      </trkpt>
      <trkpt lat="37.822310" lon="-120.164630">
        <ele>924.926</ele>
        <time>2018-12-28T23:54:20Z</time>
      </trkpt>
      <trkpt lat="37.822180" lon="-120.164050">
        <ele>925.247</ele>
        <time>2018-12-28T23:54:40Z</time>
      </trkpt>
      <trkpt lat="37.822000" lon="-120.163220">
        <ele>924.811</ele>
        <time>2018-12-28T23:55:00Z</time>
      </trkpt>
      <trkpt lat="37.821990" lon="-120.163210">
        <ele>924.608</ele>
        <time>2018-12-28T23:55:20Z</time>
      </trkpt>
      <trkpt lat="37.821160" lon="-120.159480">
        <ele>918.975</ele>
        <time>2018-12-28T23:55:40Z</time>
      </trkpt>
      <trkpt lat="37.821030" lon="-120.158920">
        <ele>914.863</ele>
        <time>2018-12-28T23:56:00Z</time>
      </trkpt>
      <trkpt lat="37.820860" lon="-120.158160">
        <ele>914.978</ele>
        <time>2018-12-28T23:56:20Z</time>
      </trkpt>
      <trkpt lat="37.820800" lon="-120.157890">
        <ele>915.687</ele>
        <time>2018-12-28T23:56:40Z</time>
      </trkpt>
      <trkpt lat="37.820750" lon="-120.157610">
        <ele>912.231</ele>
        <time>2018-12-28T23:57:00Z</time>
      </trkpt>
      <trkpt lat="37.820710" lon="-120.157350">
        <ele>909.017</ele>
        <time>2018-12-28T23:57:20Z</time>
      </trkpt>
      <trkpt lat="37.820680" lon="-120.157160">
        <ele>906.854</ele>
        <time>2018-12-28T23:57:40Z</time>
      </trkpt>
      <trkpt lat="37.820650" lon="-120.156900">
        <ele>905.718</ele>
        <time>2018-12-28T23:58:00Z</time>
      </trkpt>
      <trkpt lat="37.820630" lon="-120.156610">
        <ele>905.899</ele>
        <time>2018-12-28T23:58:20Z</time>
      </trkpt>
      <trkpt lat="37.820610" lon="-120.156340">
        <ele>906.207</ele>
        <time>2018-12-28T23:58:40Z</time>
      </trkpt>
      <trkpt lat="37.820610" lon="-120.156110">
        <ele>907.527</ele>
        <time>2018-12-28T23:59:00Z</time>
      </trkpt>
      <trkpt lat="37.820620" lon="-120.155730">
        <ele>911.908</ele>
        <time>2018-12-28T23:59:20Z</time>
      </trkpt>
      <trkpt lat="37.820640" lon="-120.155410">
        <ele>916.542</ele>
        <time>2018-12-28T23:59:40Z</time>
      </trkpt>
      <trkpt lat="37.820670" lon="-120.155060">
        <ele>918.640</ele>
        <time>2018-12-29T00:00:00Z</time>
      </trkpt>
      <trkpt lat="37.820700" lon="-120.154630">
        <ele>917.695</ele>
        <time>2018-12-29T00:00:20Z</time>
      </trkpt>
      <trkpt lat="37.820790" lon="-120.153640">
        <ele>913.424</ele>
        <time>2018-12-29T00:00:40Z</time>
      </trkpt>
      <trkpt lat="37.820840" lon="-120.153070">
        <ele>910.688</ele>
        <time>2018-12-29T00:01:00Z</time>
      </trkpt>
      <trkpt lat="37.820860" lon="-120.152840">
        <ele>904.124</ele>
        <time>2018-12-29T00:01:20Z</time>
      </trkpt>
      <trkpt lat="37.820910" lon="-120.152280">
        <ele>889.211</ele>
        <time>2018-12-29T00:01:40Z</time>
      </trkpt>
      <trkpt lat="37.820920" lon="-120.152060">
        <ele>884.315</ele>
        <time>2018-12-29T00:02:00Z</time>
      </trkpt>
      <trkpt lat="37.820950" lon="-120.151820">
        <ele>880.391</ele>
        <time>2018-12-29T00:02:20Z</time>
      </trkpt>
      <trkpt lat="37.820990" lon="-120.151340">
        <ele>871.881</ele>
        <time>2018-12-29T00:02:40Z</time>
      </trkpt>
      <trkpt lat="37.821030" lon="-120.150830">
        <ele>870.619</ele>
        <time>2018-12-29T00:03:00Z</time>
      </trkpt>
      <trkpt lat="37.821050" lon="-120.150610">
        <ele>871.208</ele>
        <time>2018-12-29T00:03:20Z</time>
      </trkpt>
      <trkpt lat="37.821060" lon="-120.150360">
        <ele>871.822</ele>
        <time>2018-12-29T00:03:40Z</time>
      </trkpt>
      <trkpt lat="37.821080" lon="-120.149910">
        <ele>872.070</ele>
        <time>2018-12-29T00:04:00Z</time>
      </trkpt>
      <trkpt lat="37.821100" lon="-120.149470">
        <ele>869.255</ele>
        <time>2018-12-29T00:04:20Z</time>
      </trkpt>
      <trkpt lat="37.821100" lon="-120.149110">
        <ele>863.634</ele>
        <time>2018-12-29T00:04:40Z</time>
      </trkpt>
      <trkpt lat="37.821100" lon="-120.148750">
        <ele>857.538</ele>
        <time>2018-12-29T00:05:00Z</time>
      </trkpt>
      <trkpt lat="37.821080" lon="-120.148300">
        <ele>852.324</ele>
        <time>2018-12-29T00:05:20Z</time>
      </trkpt>
      <trkpt lat="37.821060" lon="-120.147920">
        <ele>850.431</ele>
        <time>2018-12-29T00:05:40Z</time>
      </trkpt>
      <trkpt lat="37.821000" lon="-120.147000">
        <ele>870.015</ele>
        <time>2018-12-29T00:06:00Z</time>
      </trkpt>
      <trkpt lat="37.820940" lon="-120.146090">
        <ele>874.649</ele>
        <time>2018-12-29T00:06:20Z</time>
      </trkpt>
      <trkpt lat="37.820900" lon="-120.145350">
        <ele>876.702</ele>
        <time>2018-12-29T00:06:40Z</time>
      </trkpt>
      <trkpt lat="37.820850" lon="-120.144620">
        <ele>876.322</ele>
        <time>2018-12-29T00:07:00Z</time>
      </trkpt>
      <trkpt lat="37.820820" lon="-120.144190">
        <ele>878.508</ele>
        <time>2018-12-29T00:07:20Z</time>
      </trkpt>
      <trkpt lat="37.820670" lon="-120.141820">
        <ele>888.327</ele>
        <time>2018-12-29T00:07:40Z</time>
      </trkpt>
      <trkpt lat="37.820630" lon="-120.141120">
        <ele>886.735</ele>
        <time>2018-12-29T00:08:00Z</time>
      </trkpt>
      <trkpt lat="37.820570" lon="-120.140180">
        <ele>885.330</ele>
        <time>2018-12-29T00:08:20Z</time>
      </trkpt>
      <trkpt lat="37.820480" lon="-120.138730">
        <ele>890.389</ele>
        <time>2018-12-29T00:08:40Z</time>
      </trkpt>
      <trkpt lat="37.820320" lon="-120.136170">
        <ele>896.363</ele>
        <time>2018-12-29T00:09:00Z</time>
      </trkpt>
      <trkpt lat="37.820290" lon="-120.135770">
        <ele>894.419</ele>
        <time>2018-12-29T00:09:20Z</time>
      </trkpt>
      <trkpt lat="37.820260" lon="-120.135240">
        <ele>892.586</ele>
        <time>2018-12-29T00:09:40Z</time>
      </trkpt>
      <trkpt lat="37.820230" lon="-120.134880">
        <ele>892.640</ele>
        <time>2018-12-29T00:10:00Z</time>
      </trkpt>
      <trkpt lat="37.820210" lon="-120.134730">
        <ele>892.924</ele>
        <time>2018-12-29T00:10:20Z</time>
      </trkpt>
      <trkpt lat="37.820190" lon="-120.134560">
        <ele>893.304</ele>
        <time>2018-12-29T00:10:40Z</time>
      </trkpt>
      <trkpt lat="37.820140" lon="-120.134330">
        <ele>893.814</ele>
        <time>2018-12-29T00:11:00Z</time>
      </trkpt>
      <trkpt lat="37.820110" lon="-120.134200">
        <ele>894.108</ele>
        <time>2018-12-29T00:11:20Z</time>
      </trkpt>
      <trkpt lat="37.820090" lon="-120.134110">
        <ele>894.425</ele>
        <time>2018-12-29T00:11:40Z</time>
      </trkpt>
      <trkpt lat="37.820050" lon="-120.133990">
        <ele>894.653</ele>
        <time>2018-12-29T00:12:00Z</time>
      </trkpt>
      <trkpt lat="37.820010" lon="-120.133860">
        <ele>894.888</ele>
        <time>2018-12-29T00:12:20Z</time>
      </trkpt>
      <trkpt lat="37.819970" lon="-120.133760">
        <ele>894.977</ele>
        <time>2018-12-29T00:12:40Z</time>
      </trkpt>
      <trkpt lat="37.819940" lon="-120.133660">
        <ele>894.741</ele>
        <time>2018-12-29T00:13:00Z</time>
      </trkpt>
      <trkpt lat="37.819860" lon="-120.133470">
        <ele>894.297</ele>
        <time>2018-12-29T00:13:20Z</time>
      </trkpt>
      <trkpt lat="37.819750" lon="-120.133230">
        <ele>892.994</ele>
        <time>2018-12-29T00:13:40Z</time>
      </trkpt>
      <trkpt lat="37.819680" lon="-120.133100">
        <ele>892.188</ele>
        <time>2018-12-29T00:14:00Z</time>
      </trkpt>
      <trkpt lat="37.819620" lon="-120.132990">
        <ele>891.311</ele>
        <time>2018-12-29T00:14:20Z</time>
      </trkpt>
      <trkpt lat="37.819560" lon="-120.132890">
        <ele>891.021</ele>
        <time>2018-12-29T00:14:40Z</time>
      </trkpt>
      <trkpt lat="37.819440" lon="-120.132730">
        <ele>892.203</ele>
        <time>2018-12-29T00:15:00Z</time>
      </trkpt>
      <trkpt lat="37.819360" lon="-120.132630">
        <ele>893.108</ele>
        <time>2018-12-29T00:15:20Z</time>
      </trkpt>
      <trkpt lat="37.819270" lon="-120.132510">
        <ele>893.434</ele>
        <time>2018-12-29T00:15:40Z</time>
      </trkpt>
      <trkpt lat="37.819090" lon="-120.132310">
        <ele>894.972</ele>
        <time>2018-12-29T00:16:00Z</time>
      </trkpt>
      <trkpt lat="37.818760" lon="-120.131940">
        <ele>899.637</ele>
        <time>2018-12-29T00:16:20Z</time>
      </trkpt>
      <trkpt lat="37.818590" lon="-120.131750">
        <ele>901.586</ele>
        <time>2018-12-29T00:16:40Z</time>
      </trkpt>
      <trkpt lat="37.818370" lon="-120.131510">
        <ele>905.570</ele>
        <time>2018-12-29T00:17:00Z</time>
      </trkpt>
      <trkpt lat="37.818200" lon="-120.131310">
        <ele>908.376</ele>
        <time>2018-12-29T00:17:20Z</time>
      </trkpt>
      <trkpt lat="37.818050" lon="-120.131140">
        <ele>909.313</ele>
        <time>2018-12-29T00:17:40Z</time>
      </trkpt>
      <trkpt lat="37.817920" lon="-120.130980">
        <ele>910.527</ele>
        <time>2018-12-29T00:18:00Z</time>
      </trkpt>
      <trkpt lat="37.817780" lon="-120.130820">
        <ele>908.033</ele>
        <time>2018-12-29T00:18:20Z</time>
      </trkpt>
      <trkpt lat="37.817690" lon="-120.130690">
        <ele>905.923</ele>
        <time>2018-12-29T00:18:40Z</time>
      </trkpt>
      <trkpt lat="37.817610" lon="-120.130580">
        <ele>904.315</ele>
        <time>2018-12-29T00:19:00Z</time>
      </trkpt>
      <trkpt lat="37.817550" lon="-120.130480">
        <ele>903.408</ele>
        <time>2018-12-29T00:19:20Z</time>
      </trkpt>
      <trkpt lat="37.817470" lon="-120.130350">
        <ele>901.836</ele>
        <time>2018-12-29T00:19:40Z</time>
      </trkpt>
      <trkpt lat="37.817380" lon="-120.130200">
        <ele>899.944</ele>
        <time>2018-12-29T00:20:00Z</time>
      </trkpt>
      <trkpt lat="37.817280" lon="-120.130000">
        <ele>898.459</ele>
        <time>2018-12-29T00:20:20Z</time>
      </trkpt>
      <trkpt lat="37.817200" lon="-120.129850">
        <ele>897.228</ele>
        <time>2018-12-29T00:20:40Z</time>
      </trkpt>
      <trkpt lat="37.817110" lon="-120.129660">
        <ele>895.892</ele>
        <time>2018-12-29T00:21:00Z</time>
      </trkpt>
      <trkpt lat="37.817020" lon="-120.129430">
        <ele>895.348</ele>
        <time>2018-12-29T00:21:20Z</time>
      </trkpt>
      <trkpt lat="37.816930" lon="-120.129170">
        <ele>895.375</ele>
        <time>2018-12-29T00:21:40Z</time>
      </trkpt>
      <trkpt lat="37.816870" lon="-120.128970">
        <ele>895.779</ele>
        <time>2018-12-29T00:22:00Z</time>
      </trkpt>
      <trkpt lat="37.816760" lon="-120.128520">
        <ele>897.777</ele>
        <time>2018-12-29T00:22:20Z</time>
      </trkpt>
      <trkpt lat="37.816650" lon="-120.128090">
        <ele>899.261</ele>
        <time>2018-12-29T00:22:40Z</time>
      </trkpt>
      <trkpt lat="37.816580" lon="-120.127810">
        <ele>899.127</ele>
        <time>2018-12-29T00:23:00Z</time>
      </trkpt>
      <trkpt lat="37.816520" lon="-120.127540">
        <ele>898.508</ele>
        <time>2018-12-29T00:23:20Z</time>
      </trkpt>
      <trkpt lat="37.816420" lon="-120.127120">
        <ele>898.330</ele>
        <time>2018-12-29T00:23:40Z</time>
      </trkpt>
      <trkpt lat="37.816360" lon="-120.126870">
        <ele>898.258</ele>
        <time>2018-12-29T00:24:00Z</time>
      </trkpt>
      <trkpt lat="37.816320" lon="-120.126740">
        <ele>898.233</ele>
        <time>2018-12-29T00:24:20Z</time>
      </trkpt>
      <trkpt lat="37.816290" lon="-120.126610">
        <ele>897.922</ele>
        <time>2018-12-29T00:24:40Z</time>
      </trkpt>
      <trkpt lat="37.816230" lon="-120.126420">
        <ele>897.876</ele>
        <time>2018-12-29T00:25:00Z</time>
      </trkpt>
      <trkpt lat="37.816190" lon="-120.126300">
        <ele>898.192</ele>
        <time>2018-12-29T00:25:20Z</time>
      </trkpt>
      <trkpt lat="37.816110" lon="-120.126080">
        <ele>898.749</ele>
        <time>2018-12-29T00:25:40Z</time>
      </trkpt>
      <trkpt lat="37.816040" lon="-120.125890">
        <ele>899.363</ele>
        <time>2018-12-29T00:26:00Z</time>
      </trkpt>
      <trkpt lat="37.815920" lon="-120.125640">
        <ele>899.983</ele>
        <time>2018-12-29T00:26:20Z</time>
      </trkpt>
      <trkpt lat="37.815730" lon="-120.125240">
        <ele>899.925</ele>
        <time>2018-12-29T00:26:40Z</time>
      </trkpt>
      <trkpt lat="37.815470" lon="-120.124880">
        <ele>909.317</ele>
        <time>2018-12-29T00:27:00Z</time>
      </trkpt>
      <trkpt lat="37.815180" lon="-120.124390">
        <ele>914.508</ele>
        <time>2018-12-29T00:27:20Z</time>
      </trkpt>
      <trkpt lat="37.814960" lon="-120.124040">
        <ele>915.081</ele>
        <time>2018-12-29T00:27:40Z</time>
      </trkpt>
      <trkpt lat="37.814760" lon="-120.123720">
        <ele>921.619</ele>
        <time>2018-12-29T00:28:00Z</time>
      </trkpt>
      <trkpt lat="37.814500" lon="-120.123270">
        <ele>930.174</ele>
        <time>2018-12-29T00:28:20Z</time>
      </trkpt>
      <trkpt lat="37.814350" lon="-120.123020">
        <ele>931.883</ele>
        <time>2018-12-29T00:28:40Z</time>
      </trkpt>
      <trkpt lat="37.814250" lon="-120.122850">
        <ele>932.327</ele>
        <time>2018-12-29T00:29:00Z</time>
      </trkpt>
      <trkpt lat="37.814170" lon="-120.122690">
        <ele>932.463</ele>
        <time>2018-12-29T00:29:20Z</time>
      </trkpt>
      <trkpt lat="37.814130" lon="-120.122610">
        <ele>932.660</ele>
        <time>2018-12-29T00:29:40Z</time>
      </trkpt>
      <trkpt lat="37.814080" lon="-120.122500">
        <ele>933.224</ele>
        <time>2018-12-29T00:30:00Z</time>
      </trkpt>
      <trkpt lat="37.814030" lon="-120.122400">
        <ele>933.753</ele>
        <time>2018-12-29T00:30:20Z</time>
      </trkpt>
      <trkpt lat="37.813950" lon="-120.122200">
        <ele>934.204</ele>
        <time>2018-12-29T00:30:40Z</time>
      </trkpt>
      <trkpt lat="37.813890" lon="-120.122040">
        <ele>934.414</ele>
        <time>2018-12-29T00:31:00Z</time>
      </trkpt>
      <trkpt lat="37.813830" lon="-120.121900">
        <ele>934.308</ele>
        <time>2018-12-29T00:31:20Z</time>
      </trkpt>
      <trkpt lat="37.813780" lon="-120.121720">
        <ele>934.138</ele>
        <time>2018-12-29T00:31:40Z</time>
      </trkpt>
      <trkpt lat="37.813740" lon="-120.121600">
        <ele>933.786</ele>
        <time>2018-12-29T00:32:00Z</time>
      </trkpt>
      <trkpt lat="37.813700" lon="-120.121440">
        <ele>933.511</ele>
        <time>2018-12-29T00:32:20Z</time>
      </trkpt>
      <trkpt lat="37.813620" lon="-120.121140">
        <ele>932.960</ele>
        <time>2018-12-29T00:32:40Z</time>
      </trkpt>
      <trkpt lat="37.813590" lon="-120.120920">
        <ele>932.494</ele>
        <time>2018-12-29T00:33:00Z</time>
      </trkpt>
      <trkpt lat="37.813540" lon="-120.120650">
        <ele>931.460</ele>
        <time>2018-12-29T00:33:20Z</time>
      </trkpt>
      <trkpt lat="37.813490" lon="-120.120210">
        <ele>930.217</ele>
        <time>2018-12-29T00:33:40Z</time>
      </trkpt>
      <trkpt lat="37.813480" lon="-120.119950">
        <ele>929.991</ele>
        <time>2018-12-29T00:34:00Z</time>
      </trkpt>
      <trkpt lat="37.813480" lon="-120.119670">
        <ele>929.672</ele>
        <time>2018-12-29T00:34:20Z</time>
      </trkpt>
      <trkpt lat="37.813490" lon="-120.119380">
        <ele>929.413</ele>
        <time>2018-12-29T00:34:40Z</time>
      </trkpt>
      <trkpt lat="37.813510" lon="-120.119040">
        <ele>929.114</ele>
        <time>2018-12-29T00:35:00Z</time>
      </trkpt>
      <trkpt lat="37.813550" lon="-120.118760">
        <ele>928.908</ele>
        <time>2018-12-29T00:35:20Z</time>
      </trkpt>
      <trkpt lat="37.813600" lon="-120.118460">
        <ele>928.670</ele>
        <time>2018-12-29T00:35:40Z</time>
      </trkpt>
      <trkpt lat="37.813670" lon="-120.118110">
        <ele>928.378</ele>
        <time>2018-12-29T00:36:00Z</time>
      </trkpt>
      <trkpt lat="37.813740" lon="-120.117860">
        <ele>928.193</ele>
        <time>2018-12-29T00:36:20Z</time>
      </trkpt>
      <trkpt lat="37.813790" lon="-120.117700">
        <ele>928.182</ele>
        <time>2018-12-29T00:36:40Z</time>
      </trkpt>
      <trkpt lat="37.813860" lon="-120.117480">
        <ele>928.066</ele>
        <time>2018-12-29T00:37:00Z</time>
      </trkpt>
      <trkpt lat="37.813950" lon="-120.117210">
        <ele>927.952</ele>
        <time>2018-12-29T00:37:20Z</time>
      </trkpt>
      <trkpt lat="37.814210" lon="-120.116470">
        <ele>927.719</ele>
        <time>2018-12-29T00:37:40Z</time>
      </trkpt>
      <trkpt lat="37.814410" lon="-120.115910">
        <ele>927.863</ele>
        <time>2018-12-29T00:38:00Z</time>
      </trkpt>
      <trkpt lat="37.814940" lon="-120.114400">
        <ele>928.281</ele>
        <time>2018-12-29T00:38:20Z</time>
      </trkpt>
      <trkpt lat="37.815150" lon="-120.113790">
        <ele>928.661</ele>
        <time>2018-12-29T00:38:40Z</time>
      </trkpt>
      <trkpt lat="37.815310" lon="-120.113330">
        <ele>928.717</ele>
        <time>2018-12-29T00:39:00Z</time>
      </trkpt>
      <trkpt lat="37.815420" lon="-120.113020">
        <ele>928.608</ele>
        <time>2018-12-29T00:39:20Z</time>
      </trkpt>
      <trkpt lat="37.815570" lon="-120.112580">
        <ele>928.871</ele>
        <time>2018-12-29T00:39:40Z</time>
      </trkpt>
      <trkpt lat="37.815680" lon="-120.112270">
        <ele>928.819</ele>
        <time>2018-12-29T00:40:00Z</time>
      </trkpt>
      <trkpt lat="37.815840" lon="-120.111820">
        <ele>929.144</ele>
        <time>2018-12-29T00:40:20Z</time>
      </trkpt>
      <trkpt lat="37.815950" lon="-120.111510">
        <ele>929.173</ele>
        <time>2018-12-29T00:40:40Z</time>
      </trkpt>
      <trkpt lat="37.816000" lon="-120.111360">
        <ele>928.977</ele>
        <time>2018-12-29T00:41:00Z</time>
      </trkpt>
      <trkpt lat="37.816110" lon="-120.111080">
        <ele>928.743</ele>
        <time>2018-12-29T00:41:20Z</time>
      </trkpt>
      <trkpt lat="37.816230" lon="-120.110780">
        <ele>928.680</ele>
        <time>2018-12-29T00:41:40Z</time>
      </trkpt>
      <trkpt lat="37.816350" lon="-120.110510">
        <ele>928.654</ele>
        <time>2018-12-29T00:42:00Z</time>
      </trkpt>
      <trkpt lat="37.816500" lon="-120.110220">
        <ele>928.697</ele>
        <time>2018-12-29T00:42:20Z</time>
      </trkpt>
      <trkpt lat="37.816640" lon="-120.109950">
        <ele>928.623</ele>
        <time>2018-12-29T00:42:40Z</time>
      </trkpt>
      <trkpt lat="37.816870" lon="-120.109550">
        <ele>928.625</ele>
        <time>2018-12-29T00:43:00Z</time>
      </trkpt>
      <trkpt lat="37.817120" lon="-120.109130">
        <ele>928.608</ele>
        <time>2018-12-29T00:43:20Z</time>
      </trkpt>
      <trkpt lat="37.817670" lon="-120.108320">
        <ele>930.152</ele>
        <time>2018-12-29T00:43:40Z</time>
      </trkpt>
      <trkpt lat="37.817960" lon="-120.107910">
        <ele>930.840</ele>
        <time>2018-12-29T00:44:00Z</time>
      </trkpt>
      <trkpt lat="37.818690" lon="-120.106820">
        <ele>936.545</ele>
        <time>2018-12-29T00:44:20Z</time>
      </trkpt>
      <trkpt lat="37.819710" lon="-120.105320">
        <ele>939.714</ele>
        <time>2018-12-29T00:44:40Z</time>
      </trkpt>
      <trkpt lat="37.820310" lon="-120.104440">
        <ele>940.458</ele>
        <time>2018-12-29T00:45:00Z</time>
      </trkpt>
      <trkpt lat="37.820610" lon="-120.103990">
        <ele>940.354</ele>
        <time>2018-12-29T00:45:20Z</time>
      </trkpt>
      <trkpt lat="37.821450" lon="-120.102740">
        <ele>949.781</ele>
        <time>2018-12-29T00:45:40Z</time>
      </trkpt>
      <trkpt lat="37.822550" lon="-120.101130">
        <ele>963.375</ele>
        <time>2018-12-29T00:46:00Z</time>
      </trkpt>
      <trkpt lat="37.823120" lon="-120.100290">
        <ele>967.622</ele>
        <time>2018-12-29T00:46:20Z</time>
      </trkpt>
      <trkpt lat="37.823390" lon="-120.099900">
        <ele>968.362</ele>
        <time>2018-12-29T00:46:40Z</time>
      </trkpt>
      <trkpt lat="37.823570" lon="-120.099620">
        <ele>968.608</ele>
        <time>2018-12-29T00:47:00Z</time>
      </trkpt>
      <trkpt lat="37.823690" lon="-120.099420">
        <ele>969.808</ele>
        <time>2018-12-29T00:47:20Z</time>
      </trkpt>
      <trkpt lat="37.823860" lon="-120.099130">
        <ele>971.765</ele>
        <time>2018-12-29T00:47:40Z</time>
      </trkpt>
      <trkpt lat="37.824100" lon="-120.098680">
        <ele>974.613</ele>
        <time>2018-12-29T00:48:00Z</time>
      </trkpt>
      <trkpt lat="37.824270" lon="-120.098320">
        <ele>976.028</ele>
        <time>2018-12-29T00:48:20Z</time>
      </trkpt>
      <trkpt lat="37.824410" lon="-120.098010">
        <ele>977.247</ele>
        <time>2018-12-29T00:48:40Z</time>
      </trkpt>
      <trkpt lat="37.824500" lon="-120.097770">
        <ele>977.771</ele>
        <time>2018-12-29T00:49:00Z</time>
      </trkpt>
      <trkpt lat="37.824590" lon="-120.097520">
        <ele>977.967</ele>
        <time>2018-12-29T00:49:20Z</time>
      </trkpt>
      <trkpt lat="37.824650" lon="-120.097360">
        <ele>978.684</ele>
        <time>2018-12-29T00:49:40Z</time>
      </trkpt>
      <trkpt lat="37.824700" lon="-120.097200">
        <ele>978.958</ele>
        <time>2018-12-29T00:50:00Z</time>
      </trkpt>
      <trkpt lat="37.824790" lon="-120.096960">
        <ele>979.053</ele>
        <time>2018-12-29T00:50:20Z</time>
      </trkpt>
      <trkpt lat="37.824870" lon="-120.096690">
        <ele>977.704</ele>
        <time>2018-12-29T00:50:40Z</time>
      </trkpt>
      <trkpt lat="37.824940" lon="-120.096420">
        <ele>977.014</ele>
        <time>2018-12-29T00:51:00Z</time>
      </trkpt>
      <trkpt lat="37.824990" lon="-120.096210">
        <ele>976.808</ele>
        <time>2018-12-29T00:51:20Z</time>
      </trkpt>
      <trkpt lat="37.825040" lon="-120.096000">
        <ele>976.438</ele>
        <time>2018-12-29T00:51:40Z</time>
      </trkpt>
      <trkpt lat="37.825080" lon="-120.095820">
        <ele>976.456</ele>
        <time>2018-12-29T00:52:00Z</time>
      </trkpt>
      <trkpt lat="37.825140" lon="-120.095490">
        <ele>976.511</ele>
        <time>2018-12-29T00:52:20Z</time>
      </trkpt>
      <trkpt lat="37.825200" lon="-120.095190">
        <ele>977.270</ele>
        <time>2018-12-29T00:52:40Z</time>
      </trkpt>
      <trkpt lat="37.825230" lon="-120.094920">
        <ele>978.174</ele>
        <time>2018-12-29T00:53:00Z</time>
      </trkpt>
      <trkpt lat="37.825260" lon="-120.094710">
        <ele>979.240</ele>
        <time>2018-12-29T00:53:20Z</time>
      </trkpt>
      <trkpt lat="37.825340" lon="-120.094190">
        <ele>980.497</ele>
        <time>2018-12-29T00:53:40Z</time>
      </trkpt>
      <trkpt lat="37.825380" lon="-120.093920">
        <ele>979.681</ele>
        <time>2018-12-29T00:54:00Z</time>
      </trkpt>
      <trkpt lat="37.825430" lon="-120.093500">
        <ele>975.973</ele>
        <time>2018-12-29T00:54:20Z</time>
      </trkpt>
      <trkpt lat="37.825480" lon="-120.093180">
        <ele>970.985</ele>
        <time>2018-12-29T00:54:40Z</time>
      </trkpt>
      <trkpt lat="37.825500" lon="-120.092960">
        <ele>968.413</ele>
        <time>2018-12-29T00:55:00Z</time>
      </trkpt>
      <trkpt lat="37.825520" lon="-120.092760">
        <ele>967.008</ele>
        <time>2018-12-29T00:55:20Z</time>
      </trkpt>
      <trkpt lat="37.825520" lon="-120.092670">
        <ele>966.850</ele>
        <time>2018-12-29T00:55:40Z</time>
      </trkpt>
      <trkpt lat="37.825530" lon="-120.092530">
        <ele>966.548</ele>
        <time>2018-12-29T00:56:00Z</time>
      </trkpt>
      <trkpt lat="37.825530" lon="-120.092380">
        <ele>966.663</ele>
        <time>2018-12-29T00:56:20Z</time>
      </trkpt>
      <trkpt lat="37.825530" lon="-120.092270">
        <ele>967.292</ele>
        <time>2018-12-29T00:56:40Z</time>
      </trkpt>
      <trkpt lat="37.825520" lon="-120.092170">
        <ele>968.386</ele>
        <time>2018-12-29T00:57:00Z</time>
      </trkpt>
      <trkpt lat="37.825500" lon="-120.092040">
        <ele>970.392</ele>
        <time>2018-12-29T00:57:20Z</time>
      </trkpt>
      <trkpt lat="37.825480" lon="-120.091910">
        <ele>972.359</ele>
        <time>2018-12-29T00:57:40Z</time>
      </trkpt>
      <trkpt lat="37.825450" lon="-120.091730">
        <ele>974.523</ele>
        <time>2018-12-29T00:58:00Z</time>
      </trkpt>
      <trkpt lat="37.825430" lon="-120.091640">
        <ele>975.368</ele>
        <time>2018-12-29T00:58:20Z</time>
      </trkpt>
      <trkpt lat="37.825400" lon="-120.091530">
        <ele>976.542</ele>
        <time>2018-12-29T00:58:40Z</time>
      </trkpt>
      <trkpt lat="37.825350" lon="-120.091370">
        <ele>978.626</ele>
        <time>2018-12-29T00:59:00Z</time>
      </trkpt>
      <trkpt lat="37.825300" lon="-120.091230">
        <ele>980.908</ele>
        <time>2018-12-29T00:59:20Z</time>
      </trkpt>
      <trkpt lat="37.825270" lon="-120.091160">
        <ele>982.939</ele>
        <time>2018-12-29T00:59:40Z</time>
      </trkpt>
      <trkpt lat="37.825220" lon="-120.091040">
        <ele>985.717</ele>
        <time>2018-12-29T01:00:00Z</time>
      </trkpt>
      <trkpt lat="37.825130" lon="-120.090870">
        <ele>989.112</ele>
        <time>2018-12-29T01:00:20Z</time>
      </trkpt>
      <trkpt lat="37.825050" lon="-120.090730">
        <ele>991.321</ele>
        <time>2018-12-29T01:00:40Z</time>
      </trkpt>
      <trkpt lat="37.825000" lon="-120.090650">
        <ele>992.395</ele>
        <time>2018-12-29T01:01:00Z</time>
      </trkpt>
      <trkpt lat="37.824940" lon="-120.090560">
        <ele>993.451</ele>
        <time>2018-12-29T01:01:20Z</time>
      </trkpt>
      <trkpt lat="37.824890" lon="-120.090500">
        <ele>994.128</ele>
        <time>2018-12-29T01:01:40Z</time>
      </trkpt>
      <trkpt lat="37.824860" lon="-120.090460">
        <ele>994.512</ele>
        <time>2018-12-29T01:02:00Z</time>
      </trkpt>
      <trkpt lat="37.824810" lon="-120.090400">
        <ele>995.422</ele>
        <time>2018-12-29T01:02:20Z</time>
      </trkpt>
      <trkpt lat="37.824740" lon="-120.090310">
        <ele>996.662</ele>
        <time>2018-12-29T01:02:40Z</time>
      </trkpt>
      <trkpt lat="37.824660" lon="-120.090230">
        <ele>998.008</ele>
        <time>2018-12-29T01:03:00Z</time>
      </trkpt>
      <trkpt lat="37.824610" lon="-120.090180">
        <ele>998.708</ele>
        <time>2018-12-29T01:03:20Z</time>
      </trkpt>
      <trkpt lat="37.824510" lon="-120.090090">
        <ele>1000.395</ele>
        <time>2018-12-29T01:03:40Z</time>
      </trkpt>
      <trkpt lat="37.824340" lon="-120.089960">
        <ele>1002.523</ele>
        <time>2018-12-29T01:04:00Z</time>
      </trkpt>
      <trkpt lat="37.824240" lon="-120.089890">
        <ele>1003.138</ele>
        <time>2018-12-29T01:04:20Z</time>
      </trkpt>
      <trkpt lat="37.824140" lon="-120.089830">
        <ele>1003.997</ele>
        <time>2018-12-29T01:04:40Z</time>
      </trkpt>
      <trkpt lat="37.823980" lon="-120.089750">
        <ele>1005.781</ele>
        <time>2018-12-29T01:05:00Z</time>
      </trkpt>
      <trkpt lat="37.823850" lon="-120.089700">
        <ele>1006.717</ele>
        <time>2018-12-29T01:05:20Z</time>
      </trkpt>
      <trkpt lat="37.823690" lon="-120.089650">
        <ele>1007.564</ele>
        <time>2018-12-29T01:05:40Z</time>
      </trkpt>
      <trkpt lat="37.823550" lon="-120.089610">
        <ele>1008.688</ele>
        <time>2018-12-29T01:06:00Z</time>
      </trkpt>
      <trkpt lat="37.823380" lon="-120.089580">
        <ele>1010.567</ele>
        <time>2018-12-29T01:06:20Z</time>
      </trkpt>
      <trkpt lat="37.823210" lon="-120.089550">
        <ele>1013.281</ele>
        <time>2018-12-29T01:06:40Z</time>
      </trkpt>
      <trkpt lat="37.822820" lon="-120.089470">
        <ele>1016.919</ele>
        <time>2018-12-29T01:07:00Z</time>
      </trkpt>
      <trkpt lat="37.822570" lon="-120.089420">
        <ele>1017.908</ele>
        <time>2018-12-29T01:07:20Z</time>
      </trkpt>
      <trkpt lat="37.822410" lon="-120.089380">
        <ele>1018.479</ele>
        <time>2018-12-29T01:07:40Z</time>
      </trkpt>
      <trkpt lat="37.822340" lon="-120.089360">
        <ele>1018.657</ele>
        <time>2018-12-29T01:08:00Z</time>
      </trkpt>
      <trkpt lat="37.822250" lon="-120.089330">
        <ele>1018.892</ele>
        <time>2018-12-29T01:08:20Z</time>
      </trkpt>
      <trkpt lat="37.822130" lon="-120.089280">
        <ele>1019.291</ele>
        <time>2018-12-29T01:08:40Z</time>
      </trkpt>
      <trkpt lat="37.822010" lon="-120.089220">
        <ele>1018.245</ele>
        <time>2018-12-29T01:09:00Z</time>
      </trkpt>
      <trkpt lat="37.821900" lon="-120.089160">
        <ele>1016.981</ele>
        <time>2018-12-29T01:09:20Z</time>
      </trkpt>
      <trkpt lat="37.821830" lon="-120.089110">
        <ele>1016.328</ele>
        <time>2018-12-29T01:09:40Z</time>
      </trkpt>
      <trkpt lat="37.821720" lon="-120.089040">
        <ele>1014.882</ele>
        <time>2018-12-29T01:10:00Z</time>
      </trkpt>
      <trkpt lat="37.821530" lon="-120.088900">
        <ele>1012.074</ele>
        <time>2018-12-29T01:10:20Z</time>
      </trkpt>
      <trkpt lat="37.821350" lon="-120.088710">
        <ele>1009.356</ele>
        <time>2018-12-29T01:10:40Z</time>
      </trkpt>
      <trkpt lat="37.821250" lon="-120.088590">
        <ele>1006.821</ele>
        <time>2018-12-29T01:11:00Z</time>
      </trkpt>
      <trkpt lat="37.821080" lon="-120.088360">
        <ele>1004.908</ele>
        <time>2018-12-29T01:11:20Z</time>
      </trkpt>
      <trkpt lat="37.820820" lon="-120.087860">
        <ele>1002.740</ele>
        <time>2018-12-29T01:11:40Z</time>
      </trkpt>
      <trkpt lat="37.820520" lon="-120.087210">
        <ele>996.918</ele>
        <time>2018-12-29T01:12:00Z</time>
      </trkpt>
      <trkpt lat="37.820410" lon="-120.086970">
        <ele>995.793</ele>
        <time>2018-12-29T01:12:20Z</time>
      </trkpt>
      <trkpt lat="37.820350" lon="-120.086850">
        <ele>996.262</ele>
        <time>2018-12-29T01:12:40Z</time>
      </trkpt>
      <trkpt lat="37.820310" lon="-120.086750">
        <ele>996.636</ele>
        <time>2018-12-29T01:13:00Z</time>
      </trkpt>
      <trkpt lat="37.820280" lon="-120.086670">
        <ele>996.962</ele>
        <time>2018-12-29T01:13:20Z</time>
      </trkpt>
      <trkpt lat="37.820250" lon="-120.086560">
        <ele>997.379</ele>
        <time>2018-12-29T01:13:40Z</time>
      </trkpt>
      <trkpt lat="37.820220" lon="-120.086470">
        <ele>996.983</ele>
        <time>2018-12-29T01:14:00Z</time>
      </trkpt>
      <trkpt lat="37.820190" lon="-120.086340">
        <ele>996.336</ele>
        <time>2018-12-29T01:14:20Z</time>
      </trkpt>
      <trkpt lat="37.820150" lon="-120.086170">
        <ele>995.017</ele>
        <time>2018-12-29T01:14:40Z</time>
      </trkpt>
      <trkpt lat="37.820120" lon="-120.086020">
        <ele>993.718</ele>
        <time>2018-12-29T01:15:00Z</time>
      </trkpt>
      <trkpt lat="37.820110" lon="-120.085920">
        <ele>992.608</ele>
        <time>2018-12-29T01:15:20Z</time>
      </trkpt>
      <trkpt lat="37.820090" lon="-120.085800">
        <ele>990.396</ele>
        <time>2018-12-29T01:15:40Z</time>
      </trkpt>
      <trkpt lat="37.820090" lon="-120.085690">
        <ele>988.874</ele>
        <time>2018-12-29T01:16:00Z</time>
      </trkpt>
      <trkpt lat="37.820080" lon="-120.085550">
        <ele>987.059</ele>
        <time>2018-12-29T01:16:20Z</time>
      </trkpt>
      <trkpt lat="37.820080" lon="-120.085410">
        <ele>985.838</ele>
        <time>2018-12-29T01:16:40Z</time>
      </trkpt>
      <trkpt lat="37.820090" lon="-120.085240">
        <ele>987.942</ele>
        <time>2018-12-29T01:17:00Z</time>
      </trkpt>
      <trkpt lat="37.820110" lon="-120.085090">
        <ele>990.348</ele>
        <time>2018-12-29T01:17:20Z</time>
      </trkpt>
      <trkpt lat="37.820130" lon="-120.084930">
        <ele>993.695</ele>
        <time>2018-12-29T01:17:40Z</time>
      </trkpt>
      <trkpt lat="37.820160" lon="-120.084700">
        <ele>997.039</ele>
        <time>2018-12-29T01:18:00Z</time>
      </trkpt>
      <trkpt lat="37.820190" lon="-120.084460">
        <ele>998.876</ele>
        <time>2018-12-29T01:18:20Z</time>
      </trkpt>
      <trkpt lat="37.820230" lon="-120.084250">
        <ele>999.690</ele>
        <time>2018-12-29T01:18:40Z</time>
      </trkpt>
      <trkpt lat="37.820260" lon="-120.084040">
        <ele>998.519</ele>
        <time>2018-12-29T01:19:00Z</time>
      </trkpt>
      <trkpt lat="37.820300" lon="-120.083720">
        <ele>995.008</ele>
        <time>2018-12-29T01:19:20Z</time>
      </trkpt>
      <trkpt lat="37.820330" lon="-120.083490">
        <ele>992.370</ele>
        <time>2018-12-29T01:19:40Z</time>
      </trkpt>
      <trkpt lat="37.820360" lon="-120.083280">
        <ele>988.068</ele>
        <time>2018-12-29T01:20:00Z</time>
      </trkpt>
      <trkpt lat="37.820400" lon="-120.082900">
        <ele>979.763</ele>
        <time>2018-12-29T01:20:20Z</time>
      </trkpt>
      <trkpt lat="37.820410" lon="-120.082760">
        <ele>975.432</ele>
        <time>2018-12-29T01:20:40Z</time>
      </trkpt>
      <trkpt lat="37.820420" lon="-120.082530">
        <ele>967.366</ele>
        <time>2018-12-29T01:21:00Z</time>
      </trkpt>
      <trkpt lat="37.820410" lon="-120.082350">
        <ele>960.252</ele>
        <time>2018-12-29T01:21:20Z</time>
      </trkpt>
      <trkpt lat="37.820400" lon="-120.082140">
        <ele>955.499</ele>
        <time>2018-12-29T01:21:40Z</time>
      </trkpt>
      <trkpt lat="37.820400" lon="-120.082060">
        <ele>954.163</ele>
        <time>2018-12-29T01:22:00Z</time>
      </trkpt>
      <trkpt lat="37.820380" lon="-120.081970">
        <ele>954.426</ele>
        <time>2018-12-29T01:22:20Z</time>
      </trkpt>
      <trkpt lat="37.820370" lon="-120.081880">
        <ele>954.347</ele>
        <time>2018-12-29T01:22:40Z</time>
      </trkpt>
      <trkpt lat="37.820350" lon="-120.081770">
        <ele>954.611</ele>
        <time>2018-12-29T01:23:00Z</time>
      </trkpt>
      <trkpt lat="37.820330" lon="-120.081660">
        <ele>956.308</ele>
        <time>2018-12-29T01:23:20Z</time>
      </trkpt>
      <trkpt lat="37.820300" lon="-120.081560">
        <ele>957.225</ele>
        <time>2018-12-29T01:23:40Z</time>
      </trkpt>
      <trkpt lat="37.820270" lon="-120.081430">
        <ele>958.263</ele>
        <time>2018-12-29T01:24:00Z</time>
      </trkpt>
      <trkpt lat="37.820240" lon="-120.081350">
        <ele>958.738</ele>
        <time>2018-12-29T01:24:20Z</time>
      </trkpt>
      <trkpt lat="37.820140" lon="-120.081040">
        <ele>960.617</ele>
        <time>2018-12-29T01:24:40Z</time>
      </trkpt>
      <trkpt lat="37.820010" lon="-120.080620">
        <ele>960.071</ele>
        <time>2018-12-29T01:25:00Z</time>
      </trkpt>
      <trkpt lat="37.819930" lon="-120.080420">
        <ele>961.327</ele>
        <time>2018-12-29T01:25:20Z</time>
      </trkpt>
      <trkpt lat="37.819890" lon="-120.080260">
        <ele>963.124</ele>
        <time>2018-12-29T01:25:40Z</time>
      </trkpt>
      <trkpt lat="37.819820" lon="-120.080050">
        <ele>965.738</ele>
        <time>2018-12-29T01:26:00Z</time>
      </trkpt>
      <trkpt lat="37.819730" lon="-120.079760">
        <ele>969.696</ele>
        <time>2018-12-29T01:26:20Z</time>
      </trkpt>
      <trkpt lat="37.819690" lon="-120.079590">
        <ele>971.831</ele>
        <time>2018-12-29T01:26:40Z</time>
      </trkpt>
      <trkpt lat="37.819670" lon="-120.079470">
        <ele>972.824</ele>
        <time>2018-12-29T01:27:00Z</time>
      </trkpt>
      <trkpt lat="37.819660" lon="-120.079360">
        <ele>974.108</ele>
        <time>2018-12-29T01:27:20Z</time>
      </trkpt>
      <trkpt lat="37.819650" lon="-120.079230">
        <ele>974.792</ele>
        <time>2018-12-29T01:27:40Z</time>
      </trkpt>
      <trkpt lat="37.819640" lon="-120.079050">
        <ele>974.840</ele>
        <time>2018-12-29T01:28:00Z</time>
      </trkpt>
      <trkpt lat="37.819630" lon="-120.078900">
        <ele>972.285</ele>
        <time>2018-12-29T01:28:20Z</time>
      </trkpt>
      <trkpt lat="37.819630" lon="-120.078730">
        <ele>969.024</ele>
        <time>2018-12-29T01:28:40Z</time>
      </trkpt>
      <trkpt lat="37.819640" lon="-120.078460">
        <ele>963.668</ele>
        <time>2018-12-29T01:29:00Z</time>
      </trkpt>
      <trkpt lat="37.819640" lon="-120.078140">
        <ele>959.734</ele>
        <time>2018-12-29T01:29:20Z</time>
      </trkpt>
      <trkpt lat="37.819650" lon="-120.077930">
        <ele>958.651</ele>
        <time>2018-12-29T01:29:40Z</time>
      </trkpt>
      <trkpt lat="37.819660" lon="-120.077700">
        <ele>957.085</ele>
        <time>2018-12-29T01:30:00Z</time>
      </trkpt>
      <trkpt lat="37.819660" lon="-120.077410">
        <ele>955.651</ele>
        <time>2018-12-29T01:30:20Z</time>
      </trkpt>
      <trkpt lat="37.819660" lon="-120.077220">
        <ele>954.901</ele>
        <time>2018-12-29T01:30:40Z</time>
      </trkpt>
      <trkpt lat="37.819660" lon="-120.077110">
        <ele>954.511</ele>
        <time>2018-12-29T01:31:00Z</time>
      </trkpt>
      <trkpt lat="37.819650" lon="-120.076990">
        <ele>953.508</ele>
        <time>2018-12-29T01:31:20Z</time>
      </trkpt>
      <trkpt lat="37.819640" lon="-120.076820">
        <ele>952.058</ele>
        <time>2018-12-29T01:31:40Z</time>
      </trkpt>
      <trkpt lat="37.819610" lon="-120.076610">
        <ele>949.176</ele>
        <time>2018-12-29T01:32:00Z</time>
      </trkpt>
      <trkpt lat="37.819580" lon="-120.076490">
        <ele>947.211</ele>
        <time>2018-12-29T01:32:20Z</time>
      </trkpt>
      <trkpt lat="37.819550" lon="-120.076340">
        <ele>945.020</ele>
        <time>2018-12-29T01:32:40Z</time>
      </trkpt>
      <trkpt lat="37.819490" lon="-120.076130">
        <ele>942.184</ele>
        <time>2018-12-29T01:33:00Z</time>
      </trkpt>
      <trkpt lat="37.819450" lon="-120.076000">
        <ele>940.450</ele>
        <time>2018-12-29T01:33:20Z</time>
      </trkpt>
      <trkpt lat="37.819390" lon="-120.075850">
        <ele>939.687</ele>
        <time>2018-12-29T01:33:40Z</time>
      </trkpt>
      <trkpt lat="37.819310" lon="-120.075680">
        <ele>939.521</ele>
        <time>2018-12-29T01:34:00Z</time>
      </trkpt>
      <trkpt lat="37.819200" lon="-120.075490">
        <ele>938.413</ele>
        <time>2018-12-29T01:34:20Z</time>
      </trkpt>
      <trkpt lat="37.819120" lon="-120.075360">
        <ele>939.243</ele>
        <time>2018-12-29T01:34:40Z</time>
      </trkpt>
      <trkpt lat="37.819050" lon="-120.075260">
        <ele>940.507</ele>
        <time>2018-12-29T01:35:00Z</time>
      </trkpt>
      <trkpt lat="37.818930" lon="-120.075100">
        <ele>943.308</ele>
        <time>2018-12-29T01:35:20Z</time>
      </trkpt>
      <trkpt lat="37.818760" lon="-120.074920">
        <ele>946.034</ele>
        <time>2018-12-29T01:35:40Z</time>
      </trkpt>
      <trkpt lat="37.818370" lon="-120.074570">
        <ele>949.252</ele>
        <time>2018-12-29T01:36:00Z</time>
      </trkpt>
      <trkpt lat="37.818130" lon="-120.074350">
        <ele>950.687</ele>
        <time>2018-12-29T01:36:20Z</time>
      </trkpt>
      <trkpt lat="37.817830" lon="-120.074090">
        <ele>951.816</ele>
        <time>2018-12-29T01:36:40Z</time>
      </trkpt>
      <trkpt lat="37.817610" lon="-120.073880">
        <ele>952.610</ele>
        <time>2018-12-29T01:37:00Z</time>
      </trkpt>
      <trkpt lat="37.817410" lon="-120.073700">
        <ele>953.116</ele>
        <time>2018-12-29T01:37:20Z</time>
      </trkpt>
      <trkpt lat="37.817190" lon="-120.073510">
        <ele>953.673</ele>
        <time>2018-12-29T01:37:40Z</time>
      </trkpt>
      <trkpt lat="37.817040" lon="-120.073360">
        <ele>954.227</ele>
        <time>2018-12-29T01:38:00Z</time>
      </trkpt>
      <trkpt lat="37.816800" lon="-120.073150">
        <ele>954.051</ele>
        <time>2018-12-29T01:38:20Z</time>
      </trkpt>
      <trkpt lat="37.816610" lon="-120.072980">
        <ele>952.701</ele>
        <time>2018-12-29T01:38:40Z</time>
      </trkpt>
      <trkpt lat="37.816340" lon="-120.072740">
        <ele>949.611</ele>
        <time>2018-12-29T01:39:00Z</time>
      </trkpt>
      <trkpt lat="37.816130" lon="-120.072530">
        <ele>946.608</ele>
        <time>2018-12-29T01:39:20Z</time>
      </trkpt>
      <trkpt lat="37.815890" lon="-120.072310">
        <ele>945.888</ele>
        <time>2018-12-29T01:39:40Z</time>
      </trkpt>
      <trkpt lat="37.815650" lon="-120.072100">
        <ele>947.626</ele>
        <time>2018-12-29T01:40:00Z</time>
      </trkpt>
      <trkpt lat="37.815490" lon="-120.071960">
        <ele>950.611</ele>
        <time>2018-12-29T01:40:20Z</time>
      </trkpt>
      <trkpt lat="37.815300" lon="-120.071790">
        <ele>953.470</ele>
        <time>2018-12-29T01:40:40Z</time>
      </trkpt>
      <trkpt lat="37.815250" lon="-120.071740">
        <ele>954.094</ele>
        <time>2018-12-29T01:41:00Z</time>
      </trkpt>
      <trkpt lat="37.815190" lon="-120.071670">
        <ele>954.880</ele>
        <time>2018-12-29T01:41:20Z</time>
      </trkpt>
      <trkpt lat="37.815070" lon="-120.071530">
        <ele>956.097</ele>
        <time>2018-12-29T01:41:40Z</time>
      </trkpt>
      <trkpt lat="37.814970" lon="-120.071380">
        <ele>956.641</ele>
        <time>2018-12-29T01:42:00Z</time>
      </trkpt>
      <trkpt lat="37.814860" lon="-120.071200">
        <ele>957.096</ele>
        <time>2018-12-29T01:42:20Z</time>
      </trkpt>
      <trkpt lat="37.814790" lon="-120.071070">
        <ele>957.331</ele>
        <time>2018-12-29T01:42:40Z</time>
      </trkpt>
      <trkpt lat="37.814720" lon="-120.070930">
        <ele>957.324</ele>
        <time>2018-12-29T01:43:00Z</time>
      </trkpt>
      <trkpt lat="37.814680" lon="-120.070840">
        <ele>957.108</ele>
        <time>2018-12-29T01:43:20Z</time>
      </trkpt>
      <trkpt lat="37.814620" lon="-120.070680">
        <ele>956.672</ele>
        <time>2018-12-29T01:43:40Z</time>
      </trkpt>
      <trkpt lat="37.814560" lon="-120.070490">
        <ele>956.080</ele>
        <time>2018-12-29T01:44:00Z</time>
      </trkpt>
      <trkpt lat="37.814520" lon="-120.070340">
        <ele>955.465</ele>
        <time>2018-12-29T01:44:20Z</time>
      </trkpt>
      <trkpt lat="37.814500" lon="-120.070260">
        <ele>954.974</ele>
        <time>2018-12-29T01:44:40Z</time>
      </trkpt>
      <trkpt lat="37.814320" lon="-120.069310">
        <ele>944.558</ele>
        <time>2018-12-29T01:45:00Z</time>
      </trkpt>
      <trkpt lat="37.814240" lon="-120.068870">
        <ele>943.194</ele>
        <time>2018-12-29T01:45:20Z</time>
      </trkpt>
      <trkpt lat="37.814150" lon="-120.068380">
        <ele>941.471</ele>
        <time>2018-12-29T01:45:40Z</time>
      </trkpt>
      <trkpt lat="37.814070" lon="-120.067910">
        <ele>940.685</ele>
        <time>2018-12-29T01:46:00Z</time>
      </trkpt>
      <trkpt lat="37.814020" lon="-120.067670">
        <ele>939.543</ele>
        <time>2018-12-29T01:46:20Z</time>
      </trkpt>
      <trkpt lat="37.813980" lon="-120.067450">
        <ele>939.064</ele>
        <time>2018-12-29T01:46:40Z</time>
      </trkpt>
      <trkpt lat="37.813940" lon="-120.067250">
        <ele>939.110</ele>
        <time>2018-12-29T01:47:00Z</time>
      </trkpt>
      <trkpt lat="37.813920" lon="-120.067090">
        <ele>939.908</ele>
        <time>2018-12-29T01:47:20Z</time>
      </trkpt>
      <trkpt lat="37.813900" lon="-120.066980">
        <ele>940.667</ele>
        <time>2018-12-29T01:47:40Z</time>
      </trkpt>
      <trkpt lat="37.813880" lon="-120.066840">
        <ele>941.785</ele>
        <time>2018-12-29T01:48:00Z</time>
      </trkpt>
      <trkpt lat="37.813860" lon="-120.066710">
        <ele>942.430</ele>
        <time>2018-12-29T01:48:20Z</time>
      </trkpt>
      <trkpt lat="37.813840" lon="-120.066470">
        <ele>943.539</ele>
        <time>2018-12-29T01:48:40Z</time>
      </trkpt>
      <trkpt lat="37.813830" lon="-120.066320">
        <ele>943.733</ele>
        <time>2018-12-29T01:49:00Z</time>
      </trkpt>
      <trkpt lat="37.813830" lon="-120.066290">
        <ele>943.849</ele>
        <time>2018-12-29T01:49:20Z</time>
      </trkpt>
      <trkpt lat="37.813830" lon="-120.066140">
        <ele>943.746</ele>
        <time>2018-12-29T01:49:40Z</time>
      </trkpt>
      <trkpt lat="37.813840" lon="-120.065960">
        <ele>943.630</ele>
        <time>2018-12-29T01:50:00Z</time>
      </trkpt>
      <trkpt lat="37.813860" lon="-120.065750">
        <ele>942.716</ele>
        <time>2018-12-29T01:50:20Z</time>
      </trkpt>
      <trkpt lat="37.813900" lon="-120.065460">
        <ele>940.576</ele>
        <time>2018-12-29T01:50:40Z</time>
      </trkpt>
      <trkpt lat="37.813940" lon="-120.065310">
        <ele>939.313</ele>
        <time>2018-12-29T01:51:00Z</time>
      </trkpt>
      <trkpt lat="37.813970" lon="-120.065140">
        <ele>937.208</ele>
        <time>2018-12-29T01:51:20Z</time>
      </trkpt>
      <trkpt lat="37.814010" lon="-120.065010">
        <ele>936.074</ele>
        <time>2018-12-29T01:51:40Z</time>
      </trkpt>
      <trkpt lat="37.814050" lon="-120.064910">
        <ele>935.182</ele>
        <time>2018-12-29T01:52:00Z</time>
      </trkpt>
      <trkpt lat="37.814070" lon="-120.064840">
        <ele>934.457</ele>
        <time>2018-12-29T01:52:20Z</time>
      </trkpt>
      <trkpt lat="37.814120" lon="-120.064710">
        <ele>933.716</ele>
        <time>2018-12-29T01:52:40Z</time>
      </trkpt>
      <trkpt lat="37.814190" lon="-120.064560">
        <ele>933.160</ele>
        <time>2018-12-29T01:53:00Z</time>
      </trkpt>
      <trkpt lat="37.814260" lon="-120.064410">
        <ele>932.856</ele>
        <time>2018-12-29T01:53:20Z</time>
      </trkpt>
      <trkpt lat="37.814300" lon="-120.064340">
        <ele>932.613</ele>
        <time>2018-12-29T01:53:40Z</time>
      </trkpt>
      <trkpt lat="37.814330" lon="-120.064290">
        <ele>932.457</ele>
        <time>2018-12-29T01:54:00Z</time>
      </trkpt>
      <trkpt lat="37.814440" lon="-120.064100">
        <ele>931.633</ele>
        <time>2018-12-29T01:54:20Z</time>
      </trkpt>
      <trkpt lat="37.815300" lon="-120.062640">
        <ele>929.123</ele>
        <time>2018-12-29T01:54:40Z</time>
      </trkpt>
      <trkpt lat="37.815590" lon="-120.062150">
        <ele>930.015</ele>
        <time>2018-12-29T01:55:00Z</time>
      </trkpt>
      <trkpt lat="37.815870" lon="-120.061670">
        <ele>931.508</ele>
        <time>2018-12-29T01:55:20Z</time>
      </trkpt>
      <trkpt lat="37.816020" lon="-120.061390">
        <ele>933.686</ele>
        <time>2018-12-29T01:55:40Z</time>
      </trkpt>
      <trkpt lat="37.816110" lon="-120.061210">
        <ele>934.924</ele>
        <time>2018-12-29T01:56:00Z</time>
      </trkpt>
      <trkpt lat="37.816210" lon="-120.061000">
        <ele>936.199</ele>
        <time>2018-12-29T01:56:20Z</time>
      </trkpt>
      <trkpt lat="37.816290" lon="-120.060810">
        <ele>936.678</ele>
        <time>2018-12-29T01:56:40Z</time>
      </trkpt>
      <trkpt lat="37.816330" lon="-120.060710">
        <ele>936.982</ele>
        <time>2018-12-29T01:57:00Z</time>
      </trkpt>
      <trkpt lat="37.816510" lon="-120.060210">
        <ele>937.838</ele>
        <time>2018-12-29T01:57:20Z</time>
      </trkpt>
      <trkpt lat="37.816840" lon="-120.059280">
        <ele>938.755</ele>
        <time>2018-12-29T01:57:40Z</time>
      </trkpt>
      <trkpt lat="37.816910" lon="-120.059110">
        <ele>939.429</ele>
        <time>2018-12-29T01:58:00Z</time>
      </trkpt>
      <trkpt lat="37.817170" lon="-120.058340">
        <ele>942.349</ele>
        <time>2018-12-29T01:58:20Z</time>
      </trkpt>
      <trkpt lat="37.817420" lon="-120.057640">
        <ele>943.802</ele>
        <time>2018-12-29T01:58:40Z</time>
      </trkpt>
      <trkpt lat="37.817590" lon="-120.057170">
        <ele>944.422</ele>
        <time>2018-12-29T01:59:00Z</time>
      </trkpt>
      <trkpt lat="37.818040" lon="-120.055780">
        <ele>945.608</ele>
        <time>2018-12-29T01:59:20Z</time>
      </trkpt>
      <trkpt lat="37.818080" lon="-120.055660">
        <ele>945.637</ele>
        <time>2018-12-29T01:59:40Z</time>
      </trkpt>
      <trkpt lat="37.818140" lon="-120.055480">
        <ele>945.665</ele>
        <time>2018-12-29T02:00:00Z</time>
      </trkpt>
      <trkpt lat="37.818440" lon="-120.054570">
        <ele>942.380</ele>
        <time>2018-12-29T02:00:20Z</time>
      </trkpt>
      <trkpt lat="37.818680" lon="-120.053830">
        <ele>941.289</ele>
        <time>2018-12-29T02:00:40Z</time>
      </trkpt>
      <trkpt lat="37.819320" lon="-120.051860">
        <ele>939.223</ele>
        <time>2018-12-29T02:01:00Z</time>
      </trkpt>
      <trkpt lat="37.819560" lon="-120.051100">
        <ele>939.799</ele>
        <time>2018-12-29T02:01:20Z</time>
      </trkpt>
      <trkpt lat="37.819620" lon="-120.050940">
        <ele>939.626</ele>
        <time>2018-12-29T02:01:40Z</time>
      </trkpt>
      <trkpt lat="37.819710" lon="-120.050650">
        <ele>939.310</ele>
        <time>2018-12-29T02:02:00Z</time>
      </trkpt>
      <trkpt lat="37.819780" lon="-120.050420">
        <ele>939.021</ele>
        <time>2018-12-29T02:02:20Z</time>
      </trkpt>
      <trkpt lat="37.819820" lon="-120.050260">
        <ele>938.741</ele>
        <time>2018-12-29T02:02:40Z</time>
      </trkpt>
      <trkpt lat="37.819840" lon="-120.050130">
        <ele>938.805</ele>
        <time>2018-12-29T02:03:00Z</time>
      </trkpt>
      <trkpt lat="37.819860" lon="-120.050020">
        <ele>938.608</ele>
        <time>2018-12-29T02:03:20Z</time>
      </trkpt>
      <trkpt lat="37.819880" lon="-120.049920">
        <ele>938.585</ele>
        <time>2018-12-29T02:03:40Z</time>
      </trkpt>
      <trkpt lat="37.819900" lon="-120.049740">
        <ele>938.273</ele>
        <time>2018-12-29T02:04:00Z</time>
      </trkpt>
      <trkpt lat="37.819910" lon="-120.049610">
        <ele>938.038</ele>
        <time>2018-12-29T02:04:20Z</time>
      </trkpt>
      <trkpt lat="37.819930" lon="-120.049360">
        <ele>937.337</ele>
        <time>2018-12-29T02:04:40Z</time>
      </trkpt>
      <trkpt lat="37.819930" lon="-120.049100">
        <ele>937.241</ele>
        <time>2018-12-29T02:05:00Z</time>
      </trkpt>
      <trkpt lat="37.819930" lon="-120.048870">
        <ele>937.627</ele>
        <time>2018-12-29T02:05:20Z</time>
      </trkpt>
      <trkpt lat="37.819910" lon="-120.048670">
        <ele>938.524</ele>
        <time>2018-12-29T02:05:40Z</time>
      </trkpt>
      <trkpt lat="37.819890" lon="-120.048430">
        <ele>939.658</ele>
        <time>2018-12-29T02:06:00Z</time>
      </trkpt>
      <trkpt lat="37.819870" lon="-120.048270">
        <ele>940.528</ele>
        <time>2018-12-29T02:06:20Z</time>
      </trkpt>
      <trkpt lat="37.819850" lon="-120.048070">
        <ele>941.689</ele>
        <time>2018-12-29T02:06:40Z</time>
      </trkpt>
      <trkpt lat="37.819820" lon="-120.047820">
        <ele>943.417</ele>
        <time>2018-12-29T02:07:00Z</time>
      </trkpt>
      <trkpt lat="37.819780" lon="-120.047530">
        <ele>946.108</ele>
        <time>2018-12-29T02:07:20Z</time>
      </trkpt>
      <trkpt lat="37.819750" lon="-120.047240">
        <ele>947.425</ele>
        <time>2018-12-29T02:07:40Z</time>
      </trkpt>
      <trkpt lat="37.819720" lon="-120.047030">
        <ele>947.093</ele>
        <time>2018-12-29T02:08:00Z</time>
      </trkpt>
      <trkpt lat="37.819700" lon="-120.046850">
        <ele>945.538</ele>
        <time>2018-12-29T02:08:20Z</time>
      </trkpt>
      <trkpt lat="37.819690" lon="-120.046650">
        <ele>943.057</ele>
        <time>2018-12-29T02:08:40Z</time>
      </trkpt>
      <trkpt lat="37.819670" lon="-120.046440">
        <ele>940.541</ele>
        <time>2018-12-29T02:09:00Z</time>
      </trkpt>
      <trkpt lat="37.819670" lon="-120.046290">
        <ele>938.767</ele>
        <time>2018-12-29T02:09:20Z</time>
      </trkpt>
      <trkpt lat="37.819680" lon="-120.046140">
        <ele>937.044</ele>
        <time>2018-12-29T02:09:40Z</time>
      </trkpt>
      <trkpt lat="37.819690" lon="-120.045970">
        <ele>935.218</ele>
        <time>2018-12-29T02:10:00Z</time>
      </trkpt>
      <trkpt lat="37.819730" lon="-120.045710">
        <ele>932.326</ele>
        <time>2018-12-29T02:10:20Z</time>
      </trkpt>
      <trkpt lat="37.819750" lon="-120.045550">
        <ele>929.647</ele>
        <time>2018-12-29T02:10:40Z</time>
      </trkpt>
      <trkpt lat="37.819770" lon="-120.045460">
        <ele>927.711</ele>
        <time>2018-12-29T02:11:00Z</time>
      </trkpt>
      <trkpt lat="37.819820" lon="-120.045290">
        <ele>921.708</ele>
        <time>2018-12-29T02:11:20Z</time>
      </trkpt>
      <trkpt lat="37.819880" lon="-120.045110">
        <ele>915.115</ele>
        <time>2018-12-29T02:11:40Z</time>
      </trkpt>
      <trkpt lat="37.819950" lon="-120.044930">
        <ele>912.443</ele>
        <time>2018-12-29T02:12:00Z</time>
      </trkpt>
      <trkpt lat="37.820010" lon="-120.044800">
        <ele>911.198</ele>
        <time>2018-12-29T02:12:20Z</time>
      </trkpt>
      <trkpt lat="37.820050" lon="-120.044720">
        <ele>911.467</ele>
        <time>2018-12-29T02:12:40Z</time>
      </trkpt>
      <trkpt lat="37.820160" lon="-120.044510">
        <ele>918.261</ele>
        <time>2018-12-29T02:13:00Z</time>
      </trkpt>
      <trkpt lat="37.820280" lon="-120.044290">
        <ele>932.597</ele>
        <time>2018-12-29T02:13:20Z</time>
      </trkpt>
      <trkpt lat="37.820440" lon="-120.043980">
        <ele>941.064</ele>
        <time>2018-12-29T02:13:40Z</time>
      </trkpt>
      <trkpt lat="37.820540" lon="-120.043790">
        <ele>946.058</ele>
        <time>2018-12-29T02:14:00Z</time>
      </trkpt>
      <trkpt lat="37.820610" lon="-120.043670">
        <ele>951.141</ele>
        <time>2018-12-29T02:14:20Z</time>
      </trkpt>
      <trkpt lat="37.820680" lon="-120.043540">
        <ele>958.281</ele>
        <time>2018-12-29T02:14:40Z</time>
      </trkpt>
      <trkpt lat="37.820740" lon="-120.043420">
        <ele>963.609</ele>
        <time>2018-12-29T02:15:00Z</time>
      </trkpt>
      <trkpt lat="37.820830" lon="-120.043240">
        <ele>968.708</ele>
        <time>2018-12-29T02:15:20Z</time>
      </trkpt>
      <trkpt lat="37.820880" lon="-120.043130">
        <ele>970.947</ele>
        <time>2018-12-29T02:15:40Z</time>
      </trkpt>
      <trkpt lat="37.820940" lon="-120.043000">
        <ele>972.765</ele>
        <time>2018-12-29T02:16:00Z</time>
      </trkpt>
      <trkpt lat="37.821000" lon="-120.042860">
        <ele>973.090</ele>
        <time>2018-12-29T02:16:20Z</time>
      </trkpt>
      <trkpt lat="37.821050" lon="-120.042710">
        <ele>971.669</ele>
        <time>2018-12-29T02:16:40Z</time>
      </trkpt>
      <trkpt lat="37.821090" lon="-120.042590">
        <ele>969.653</ele>
        <time>2018-12-29T02:17:00Z</time>
      </trkpt>
      <trkpt lat="37.821130" lon="-120.042470">
        <ele>966.359</ele>
        <time>2018-12-29T02:17:20Z</time>
      </trkpt>
      <trkpt lat="37.821180" lon="-120.042270">
        <ele>959.156</ele>
        <time>2018-12-29T02:17:40Z</time>
      </trkpt>
      <trkpt lat="37.821240" lon="-120.042030">
        <ele>947.860</ele>
        <time>2018-12-29T02:18:00Z</time>
      </trkpt>
      <trkpt lat="37.821280" lon="-120.041830">
        <ele>941.678</ele>
        <time>2018-12-29T02:18:20Z</time>
      </trkpt>
      <trkpt lat="37.821360" lon="-120.041400">
        <ele>931.633</ele>
        <time>2018-12-29T02:18:40Z</time>
      </trkpt>
      <trkpt lat="37.821420" lon="-120.041090">
        <ele>926.226</ele>
        <time>2018-12-29T02:19:00Z</time>
      </trkpt>
      <trkpt lat="37.821500" lon="-120.040720">
        <ele>932.408</ele>
        <time>2018-12-29T02:19:20Z</time>
      </trkpt>
      <trkpt lat="37.821550" lon="-120.040450">
        <ele>940.370</ele>
        <time>2018-12-29T02:19:40Z</time>
      </trkpt>
      <trkpt lat="37.821610" lon="-120.040140">
        <ele>941.528</ele>
        <time>2018-12-29T02:20:00Z</time>
      </trkpt>
      <trkpt lat="37.821660" lon="-120.039890">
        <ele>946.893</ele>
        <time>2018-12-29T02:20:20Z</time>
      </trkpt>
      <trkpt lat="37.821720" lon="-120.039540">
        <ele>954.522</ele>
        <time>2018-12-29T02:20:40Z</time>
      </trkpt>
      <trkpt lat="37.821750" lon="-120.039440">
        <ele>956.146</ele>
        <time>2018-12-29T02:21:00Z</time>
      </trkpt>
      <trkpt lat="37.821770" lon="-120.039350">
        <ele>957.542</ele>
        <time>2018-12-29T02:21:20Z</time>
      </trkpt>
      <trkpt lat="37.821800" lon="-120.039160">
        <ele>958.869</ele>
        <time>2018-12-29T02:21:40Z</time>
      </trkpt>
      <trkpt lat="37.821840" lon="-120.038960">
        <ele>958.073</ele>
        <time>2018-12-29T02:22:00Z</time>
      </trkpt>
      <trkpt lat="37.821870" lon="-120.038750">
        <ele>956.596</ele>
        <time>2018-12-29T02:22:20Z</time>
      </trkpt>
      <trkpt lat="37.821890" lon="-120.038570">
        <ele>955.331</ele>
        <time>2018-12-29T02:22:40Z</time>
      </trkpt>
      <trkpt lat="37.821900" lon="-120.038390">
        <ele>954.424</ele>
        <time>2018-12-29T02:23:00Z</time>
      </trkpt>
      <trkpt lat="37.821900" lon="-120.038120">
        <ele>953.108</ele>
        <time>2018-12-29T02:23:20Z</time>
      </trkpt>
      <trkpt lat="37.821890" lon="-120.037880">
        <ele>951.812</ele>
        <time>2018-12-29T02:23:40Z</time>
      </trkpt>
      <trkpt lat="37.821860" lon="-120.037580">
        <ele>951.020</ele>
        <time>2018-12-29T02:24:00Z</time>
      </trkpt>
      <trkpt lat="37.821820" lon="-120.037330">
        <ele>951.135</ele>
        <time>2018-12-29T02:24:20Z</time>
      </trkpt>
      <trkpt lat="37.821730" lon="-120.036910">
        <ele>949.854</ele>
        <time>2018-12-29T02:24:40Z</time>
      </trkpt>
      <trkpt lat="37.821680" lon="-120.036700">
        <ele>949.428</ele>
        <time>2018-12-29T02:25:00Z</time>
      </trkpt>
      <trkpt lat="37.821590" lon="-120.036200">
        <ele>949.664</ele>
        <time>2018-12-29T02:25:20Z</time>
      </trkpt>
      <trkpt lat="37.821520" lon="-120.035860">
        <ele>949.391</ele>
        <time>2018-12-29T02:25:40Z</time>
      </trkpt>
      <trkpt lat="37.821420" lon="-120.035390">
        <ele>947.835</ele>
        <time>2018-12-29T02:26:00Z</time>
      </trkpt>
      <trkpt lat="37.821320" lon="-120.034950">
        <ele>955.969</ele>
        <time>2018-12-29T02:26:20Z</time>
      </trkpt>
      <trkpt lat="37.821260" lon="-120.034630">
        <ele>959.904</ele>
        <time>2018-12-29T02:26:40Z</time>
      </trkpt>
      <trkpt lat="37.821110" lon="-120.033940">
        <ele>960.624</ele>
        <time>2018-12-29T02:27:00Z</time>
      </trkpt>
      <trkpt lat="37.821030" lon="-120.033540">
        <ele>960.808</ele>
        <time>2018-12-29T02:27:20Z</time>
      </trkpt>
      <trkpt lat="37.820960" lon="-120.033180">
        <ele>960.629</ele>
        <time>2018-12-29T02:27:40Z</time>
      </trkpt>
      <trkpt lat="37.820910" lon="-120.032830">
        <ele>958.197</ele>
        <time>2018-12-29T02:28:00Z</time>
      </trkpt>
      <trkpt lat="37.820890" lon="-120.032650">
        <ele>957.972</ele>
        <time>2018-12-29T02:28:20Z</time>
      </trkpt>
      <trkpt lat="37.820880" lon="-120.032480">
        <ele>958.421</ele>
        <time>2018-12-29T02:28:40Z</time>
      </trkpt>
      <trkpt lat="37.820870" lon="-120.032260">
        <ele>959.095</ele>
        <time>2018-12-29T02:29:00Z</time>
      </trkpt>
      <trkpt lat="37.820870" lon="-120.032130">
        <ele>959.261</ele>
        <time>2018-12-29T02:29:20Z</time>
      </trkpt>
      <trkpt lat="37.820870" lon="-120.031970">
        <ele>959.118</ele>
        <time>2018-12-29T02:29:40Z</time>
      </trkpt>
      <trkpt lat="37.820930" lon="-120.031090">
        <ele>956.162</ele>
        <time>2018-12-29T02:30:00Z</time>
      </trkpt>
      <trkpt lat="37.821070" lon="-120.029850">
        <ele>953.065</ele>
        <time>2018-12-29T02:30:20Z</time>
      </trkpt>
      <trkpt lat="37.821090" lon="-120.029610">
        <ele>952.468</ele>
        <time>2018-12-29T02:30:40Z</time>
      </trkpt>
      <trkpt lat="37.821160" lon="-120.029270">
        <ele>949.314</ele>
        <time>2018-12-29T02:31:00Z</time>
      </trkpt>
      <trkpt lat="37.821280" lon="-120.028830">
        <ele>943.808</ele>
        <time>2018-12-29T02:31:20Z</time>
      </trkpt>
      <trkpt lat="37.821370" lon="-120.028580">
        <ele>946.029</ele>
        <time>2018-12-29T02:31:40Z</time>
      </trkpt>
      <trkpt lat="37.821480" lon="-120.028310">
        <ele>949.667</ele>
        <time>2018-12-29T02:32:00Z</time>
      </trkpt>
      <trkpt lat="37.821520" lon="-120.028230">
        <ele>950.362</ele>
        <time>2018-12-29T02:32:20Z</time>
      </trkpt>
      <trkpt lat="37.821650" lon="-120.028010">
        <ele>951.651</ele>
        <time>2018-12-29T02:32:40Z</time>
      </trkpt>
      <trkpt lat="37.822250" lon="-120.027150">
        <ele>956.035</ele>
        <time>2018-12-29T02:33:00Z</time>
      </trkpt>
      <trkpt lat="37.822410" lon="-120.026870">
        <ele>956.341</ele>
        <time>2018-12-29T02:33:20Z</time>
      </trkpt>
      <trkpt lat="37.822490" lon="-120.026670">
        <ele>956.358</ele>
        <time>2018-12-29T02:33:40Z</time>
      </trkpt>
      <trkpt lat="37.822560" lon="-120.026510">
        <ele>956.142</ele>
        <time>2018-12-29T02:34:00Z</time>
      </trkpt>
      <trkpt lat="37.822620" lon="-120.026280">
        <ele>955.462</ele>
        <time>2018-12-29T02:34:20Z</time>
      </trkpt>
      <trkpt lat="37.822670" lon="-120.026070">
        <ele>956.183</ele>
        <time>2018-12-29T02:34:40Z</time>
      </trkpt>
      <trkpt lat="37.822710" lon="-120.025860">
        <ele>957.111</ele>
        <time>2018-12-29T02:35:00Z</time>
      </trkpt>
      <trkpt lat="37.822720" lon="-120.025770">
        <ele>957.308</ele>
        <time>2018-12-29T02:35:20Z</time>
      </trkpt>
      <trkpt lat="37.822730" lon="-120.025680">
        <ele>957.239</ele>
        <time>2018-12-29T02:35:40Z</time>
      </trkpt>
      <trkpt lat="37.822730" lon="-120.025620">
        <ele>956.477</ele>
        <time>2018-12-29T02:36:00Z</time>
      </trkpt>
      <trkpt lat="37.822730" lon="-120.025340">
        <ele>952.382</ele>
        <time>2018-12-29T02:36:20Z</time>
      </trkpt>
      <trkpt lat="37.822730" lon="-120.025080">
        <ele>948.041</ele>
        <time>2018-12-29T02:36:40Z</time>
      </trkpt>
      <trkpt lat="37.822700" lon="-120.024780">
        <ele>944.155</ele>
        <time>2018-12-29T02:37:00Z</time>
      </trkpt>
      <trkpt lat="37.822690" lon="-120.024510">
        <ele>942.481</ele>
        <time>2018-12-29T02:37:20Z</time>
      </trkpt>
      <trkpt lat="37.822670" lon="-120.023830">
        <ele>936.538</ele>
        <time>2018-12-29T02:37:40Z</time>
      </trkpt>
      <trkpt lat="37.822680" lon="-120.023710">
        <ele>935.352</ele>
        <time>2018-12-29T02:38:00Z</time>
      </trkpt>
      <trkpt lat="37.822680" lon="-120.023600">
        <ele>934.476</ele>
        <time>2018-12-29T02:38:20Z</time>
      </trkpt>
      <trkpt lat="37.822700" lon="-120.023430">
        <ele>933.090</ele>
        <time>2018-12-29T02:38:40Z</time>
      </trkpt>
      <trkpt lat="37.822750" lon="-120.023220">
        <ele>931.219</ele>
        <time>2018-12-29T02:39:00Z</time>
      </trkpt>
      <trkpt lat="37.822810" lon="-120.023060">
        <ele>929.008</ele>
        <time>2018-12-29T02:39:20Z</time>
      </trkpt>
      <trkpt lat="37.822900" lon="-120.022870">
        <ele>926.980</ele>
        <time>2018-12-29T02:39:40Z</time>
      </trkpt>
      <trkpt lat="37.822920" lon="-120.022820">
        <ele>926.688</ele>
        <time>2018-12-29T02:40:00Z</time>
      </trkpt>
      <trkpt lat="37.823050" lon="-120.022570">
        <ele>924.593</ele>
        <time>2018-12-29T02:40:20Z</time>
      </trkpt>
      <trkpt lat="37.823100" lon="-120.022500">
        <ele>923.892</ele>
        <time>2018-12-29T02:40:40Z</time>
      </trkpt>
      <trkpt lat="37.823210" lon="-120.022350">
        <ele>921.956</ele>
        <time>2018-12-29T02:41:00Z</time>
      </trkpt>
      <trkpt lat="37.823310" lon="-120.022240">
        <ele>921.142</ele>
        <time>2018-12-29T02:41:20Z</time>
      </trkpt>
      <trkpt lat="37.823370" lon="-120.022190">
        <ele>920.889</ele>
        <time>2018-12-29T02:41:40Z</time>
      </trkpt>
      <trkpt lat="37.823530" lon="-120.022100">
        <ele>920.123</ele>
        <time>2018-12-29T02:42:00Z</time>
      </trkpt>
      <trkpt lat="37.823650" lon="-120.022040">
        <ele>920.134</ele>
        <time>2018-12-29T02:42:20Z</time>
      </trkpt>
      <trkpt lat="37.823910" lon="-120.021890">
        <ele>921.255</ele>
        <time>2018-12-29T02:42:40Z</time>
      </trkpt>
      <trkpt lat="37.824190" lon="-120.021730">
        <ele>921.110</ele>
        <time>2018-12-29T02:43:00Z</time>
      </trkpt>
      <trkpt lat="37.824360" lon="-120.021620">
        <ele>919.508</ele>
        <time>2018-12-29T02:43:20Z</time>
      </trkpt>
      <trkpt lat="37.824510" lon="-120.021500">
        <ele>917.296</ele>
        <time>2018-12-29T02:43:40Z</time>
      </trkpt>
      <trkpt lat="37.824630" lon="-120.021390">
        <ele>913.644</ele>
        <time>2018-12-29T02:44:00Z</time>
      </trkpt>
      <trkpt lat="37.824700" lon="-120.021300">
        <ele>911.359</ele>
        <time>2018-12-29T02:44:20Z</time>
      </trkpt>
      <trkpt lat="37.824780" lon="-120.021190">
        <ele>909.418</ele>
        <time>2018-12-29T02:44:40Z</time>
      </trkpt>
      <trkpt lat="37.824840" lon="-120.021090">
        <ele>908.822</ele>
        <time>2018-12-29T02:45:00Z</time>
      </trkpt>
      <trkpt lat="37.824880" lon="-120.021030">
        <ele>908.548</ele>
        <time>2018-12-29T02:45:20Z</time>
      </trkpt>
      <trkpt lat="37.824980" lon="-120.020870">
        <ele>908.895</ele>
        <time>2018-12-29T02:45:40Z</time>
      </trkpt>
      <trkpt lat="37.825020" lon="-120.020780">
        <ele>909.949</ele>
        <time>2018-12-29T02:46:00Z</time>
      </trkpt>
      <trkpt lat="37.825050" lon="-120.020700">
        <ele>911.214</ele>
        <time>2018-12-29T02:46:20Z</time>
      </trkpt>
      <trkpt lat="37.825080" lon="-120.020620">
        <ele>912.054</ele>
        <time>2018-12-29T02:46:40Z</time>
      </trkpt>
      <trkpt lat="37.825110" lon="-120.020540">
        <ele>913.009</ele>
        <time>2018-12-29T02:47:00Z</time>
      </trkpt>
      <trkpt lat="37.825130" lon="-120.020480">
        <ele>913.908</ele>
        <time>2018-12-29T02:47:20Z</time>
      </trkpt>
      <trkpt lat="37.825140" lon="-120.020420">
        <ele>915.194</ele>
        <time>2018-12-29T02:47:40Z</time>
      </trkpt>
      <trkpt lat="37.825160" lon="-120.020340">
        <ele>916.432</ele>
        <time>2018-12-29T02:48:00Z</time>
      </trkpt>
      <trkpt lat="37.825180" lon="-120.020280">
        <ele>917.327</ele>
        <time>2018-12-29T02:48:20Z</time>
      </trkpt>
      <trkpt lat="37.825190" lon="-120.020220">
        <ele>918.386</ele>
        <time>2018-12-29T02:48:40Z</time>
      </trkpt>
      <trkpt lat="37.825200" lon="-120.020130">
        <ele>919.710</ele>
        <time>2018-12-29T02:49:00Z</time>
      </trkpt>
      <trkpt lat="37.825210" lon="-120.020060">
        <ele>919.226</ele>
        <time>2018-12-29T02:49:20Z</time>
      </trkpt>
      <trkpt lat="37.825210" lon="-120.019990">
        <ele>918.993</ele>
        <time>2018-12-29T02:49:40Z</time>
      </trkpt>
      <trkpt lat="37.825210" lon="-120.019940">
        <ele>918.757</ele>
        <time>2018-12-29T02:50:00Z</time>
      </trkpt>
      <trkpt lat="37.825200" lon="-120.019870">
        <ele>918.572</ele>
        <time>2018-12-29T02:50:20Z</time>
      </trkpt>
      <trkpt lat="37.825190" lon="-120.019800">
        <ele>917.613</ele>
        <time>2018-12-29T02:50:40Z</time>
      </trkpt>
      <trkpt lat="37.825170" lon="-120.019730">
        <ele>916.814</ele>
        <time>2018-12-29T02:51:00Z</time>
      </trkpt>
      <trkpt lat="37.825150" lon="-120.019650">
        <ele>916.008</ele>
        <time>2018-12-29T02:51:20Z</time>
      </trkpt>
      <trkpt lat="37.825130" lon="-120.019570">
        <ele>915.170</ele>
        <time>2018-12-29T02:51:40Z</time>
      </trkpt>
      <trkpt lat="37.825110" lon="-120.019510">
        <ele>913.638</ele>
        <time>2018-12-29T02:52:00Z</time>
      </trkpt>
      <trkpt lat="37.825090" lon="-120.019460">
        <ele>912.453</ele>
        <time>2018-12-29T02:52:20Z</time>
      </trkpt>
      <trkpt lat="37.825060" lon="-120.019360">
        <ele>910.122</ele>
        <time>2018-12-29T02:52:40Z</time>
      </trkpt>
      <trkpt lat="37.825020" lon="-120.019270">
        <ele>908.366</ele>
        <time>2018-12-29T02:53:00Z</time>
      </trkpt>
      <trkpt lat="37.824960" lon="-120.019160">
        <ele>906.252</ele>
        <time>2018-12-29T02:53:20Z</time>
      </trkpt>
      <trkpt lat="37.824890" lon="-120.019030">
        <ele>903.579</ele>
        <time>2018-12-29T02:53:40Z</time>
      </trkpt>
      <trkpt lat="37.824810" lon="-120.018910">
        <ele>900.713</ele>
        <time>2018-12-29T02:54:00Z</time>
      </trkpt>
      <trkpt lat="37.824680" lon="-120.018750">
        <ele>898.797</ele>
        <time>2018-12-29T02:54:20Z</time>
      </trkpt>
      <trkpt lat="37.824590" lon="-120.018660">
        <ele>898.223</ele>
        <time>2018-12-29T02:54:40Z</time>
      </trkpt>
      <trkpt lat="37.824500" lon="-120.018580">
        <ele>897.925</ele>
        <time>2018-12-29T02:55:00Z</time>
      </trkpt>
      <trkpt lat="37.824220" lon="-120.018380">
        <ele>897.708</ele>
        <time>2018-12-29T02:55:20Z</time>
      </trkpt>
      <trkpt lat="37.823790" lon="-120.018070">
        <ele>888.092</ele>
        <time>2018-12-29T02:55:40Z</time>
      </trkpt>
      <trkpt lat="37.823480" lon="-120.017840">
        <ele>881.280</ele>
        <time>2018-12-29T02:56:00Z</time>
      </trkpt>
      <trkpt lat="37.823370" lon="-120.017770">
        <ele>883.295</ele>
        <time>2018-12-29T02:56:20Z</time>
      </trkpt>
      <trkpt lat="37.823220" lon="-120.017670">
        <ele>886.464</ele>
        <time>2018-12-29T02:56:40Z</time>
      </trkpt>
      <trkpt lat="37.823060" lon="-120.017520">
        <ele>886.638</ele>
        <time>2018-12-29T02:57:00Z</time>
      </trkpt>
      <trkpt lat="37.822920" lon="-120.017350">
        <ele>885.374</ele>
        <time>2018-12-29T02:57:20Z</time>
      </trkpt>
      <trkpt lat="37.822890" lon="-120.017300">
        <ele>883.711</ele>
        <time>2018-12-29T02:57:40Z</time>
      </trkpt>
      <trkpt lat="37.822840" lon="-120.017240">
        <ele>881.945</ele>
        <time>2018-12-29T02:58:00Z</time>
      </trkpt>
      <trkpt lat="37.822750" lon="-120.017090">
        <ele>877.518</ele>
        <time>2018-12-29T02:58:20Z</time>
      </trkpt>
      <trkpt lat="37.822660" lon="-120.016950">
        <ele>870.398</ele>
        <time>2018-12-29T02:58:40Z</time>
      </trkpt>
      <trkpt lat="37.822610" lon="-120.016880">
        <ele>866.817</ele>
        <time>2018-12-29T02:59:00Z</time>
      </trkpt>
      <trkpt lat="37.822570" lon="-120.016800">
        <ele>863.308</ele>
        <time>2018-12-29T02:59:20Z</time>
      </trkpt>
      <trkpt lat="37.822540" lon="-120.016720">
        <ele>862.194</ele>
        <time>2018-12-29T02:59:40Z</time>
      </trkpt>
      <trkpt lat="37.822510" lon="-120.016630">
        <ele>861.312</ele>
        <time>2018-12-29T03:00:00Z</time>
      </trkpt>
      <trkpt lat="37.822500" lon="-120.016540">
        <ele>860.157</ele>
        <time>2018-12-29T03:00:20Z</time>
      </trkpt>
      <trkpt lat="37.822500" lon="-120.016460">
        <ele>860.926</ele>
        <time>2018-12-29T03:00:40Z</time>
      </trkpt>
      <trkpt lat="37.822500" lon="-120.016400">
        <ele>861.890</ele>
        <time>2018-12-29T03:01:00Z</time>
      </trkpt>
      <trkpt lat="37.822500" lon="-120.016330">
        <ele>862.976</ele>
        <time>2018-12-29T03:01:20Z</time>
      </trkpt>
      <trkpt lat="37.822500" lon="-120.016200">
        <ele>865.533</ele>
        <time>2018-12-29T03:01:40Z</time>
      </trkpt>
      <trkpt lat="37.822510" lon="-120.016120">
        <ele>867.317</ele>
        <time>2018-12-29T03:02:00Z</time>
      </trkpt>
      <trkpt lat="37.822520" lon="-120.016050">
        <ele>868.825</ele>
        <time>2018-12-29T03:02:20Z</time>
      </trkpt>
      <trkpt lat="37.822540" lon="-120.015970">
        <ele>870.026</ele>
        <time>2018-12-29T03:02:40Z</time>
      </trkpt>
      <trkpt lat="37.822560" lon="-120.015890">
        <ele>871.608</ele>
        <time>2018-12-29T03:03:00Z</time>
      </trkpt>
      <trkpt lat="37.822620" lon="-120.015640">
        <ele>875.208</ele>
        <time>2018-12-29T03:03:20Z</time>
      </trkpt>
      <trkpt lat="37.822670" lon="-120.015440">
        <ele>875.495</ele>
        <time>2018-12-29T03:03:40Z</time>
      </trkpt>
      <trkpt lat="37.822700" lon="-120.015220">
        <ele>872.023</ele>
        <time>2018-12-29T03:04:00Z</time>
      </trkpt>
      <trkpt lat="37.822730" lon="-120.015010">
        <ele>867.698</ele>
        <time>2018-12-29T03:04:20Z</time>
      </trkpt>
      <trkpt lat="37.822780" lon="-120.014640">
        <ele>862.217</ele>
        <time>2018-12-29T03:04:40Z</time>
      </trkpt>
      <trkpt lat="37.822810" lon="-120.014430">
        <ele>860.211</ele>
        <time>2018-12-29T03:05:00Z</time>
      </trkpt>
      <trkpt lat="37.822900" lon="-120.014200">
        <ele>856.147</ele>
        <time>2018-12-29T03:05:20Z</time>
      </trkpt>
      <trkpt lat="37.822940" lon="-120.014090">
        <ele>852.764</ele>
        <time>2018-12-29T03:05:40Z</time>
      </trkpt>
      <trkpt lat="37.822970" lon="-120.013980">
        <ele>847.968</ele>
        <time>2018-12-29T03:06:00Z</time>
      </trkpt>
      <trkpt lat="37.823000" lon="-120.013890">
        <ele>842.126</ele>
        <time>2018-12-29T03:06:20Z</time>
      </trkpt>
      <trkpt lat="37.823020" lon="-120.013780">
        <ele>835.947</ele>
        <time>2018-12-29T03:06:40Z</time>
      </trkpt>
      <trkpt lat="37.823050" lon="-120.013680">
        <ele>830.411</ele>
        <time>2018-12-29T03:07:00Z</time>
      </trkpt>
      <trkpt lat="37.823100" lon="-120.013500">
        <ele>820.808</ele>
        <time>2018-12-29T03:07:20Z</time>
      </trkpt>
      <trkpt lat="37.823130" lon="-120.013430">
        <ele>819.935</ele>
        <time>2018-12-29T03:07:40Z</time>
      </trkpt>
      <trkpt lat="37.823150" lon="-120.013380">
        <ele>820.523</ele>
        <time>2018-12-29T03:08:00Z</time>
      </trkpt>
      <trkpt lat="37.823200" lon="-120.013310">
        <ele>820.778</ele>
        <time>2018-12-29T03:08:20Z</time>
      </trkpt>
      <trkpt lat="37.823240" lon="-120.013260">
        <ele>822.037</ele>
        <time>2018-12-29T03:08:40Z</time>
      </trkpt>
      <trkpt lat="37.823300" lon="-120.013200">
        <ele>824.721</ele>
        <time>2018-12-29T03:09:00Z</time>
      </trkpt>
      <trkpt lat="37.823380" lon="-120.013130">
        <ele>831.787</ele>
        <time>2018-12-29T03:09:20Z</time>
      </trkpt>
      <trkpt lat="37.823420" lon="-120.013090">
        <ele>835.774</ele>
        <time>2018-12-29T03:09:40Z</time>
      </trkpt>
      <trkpt lat="37.823550" lon="-120.012990">
        <ele>846.158</ele>
        <time>2018-12-29T03:10:00Z</time>
      </trkpt>
      <trkpt lat="37.823670" lon="-120.012900">
        <ele>853.964</ele>
        <time>2018-12-29T03:10:20Z</time>
      </trkpt>
      <trkpt lat="37.823720" lon="-120.012850">
        <ele>856.606</ele>
        <time>2018-12-29T03:10:40Z</time>
      </trkpt>
      <trkpt lat="37.823760" lon="-120.012810">
        <ele>858.716</ele>
        <time>2018-12-29T03:11:00Z</time>
      </trkpt>
      <trkpt lat="37.823870" lon="-120.012670">
        <ele>864.708</ele>
        <time>2018-12-29T03:11:20Z</time>
      </trkpt>
      <trkpt lat="37.824010" lon="-120.012500">
        <ele>869.879</ele>
        <time>2018-12-29T03:11:40Z</time>
      </trkpt>
      <trkpt lat="37.824120" lon="-120.012340">
        <ele>873.437</ele>
        <time>2018-12-29T03:12:00Z</time>
      </trkpt>
      <trkpt lat="37.824270" lon="-120.012110">
        <ele>878.832</ele>
        <time>2018-12-29T03:12:20Z</time>
      </trkpt>
      <trkpt lat="37.824380" lon="-120.011940">
        <ele>880.931</ele>
        <time>2018-12-29T03:12:40Z</time>
      </trkpt>
      <trkpt lat="37.824470" lon="-120.011810">
        <ele>881.955</ele>
        <time>2018-12-29T03:13:00Z</time>
      </trkpt>
      <trkpt lat="37.824530" lon="-120.011690">
        <ele>882.121</ele>
        <time>2018-12-29T03:13:20Z</time>
      </trkpt>
      <trkpt lat="37.824590" lon="-120.011540">
        <ele>882.158</ele>
        <time>2018-12-29T03:13:40Z</time>
      </trkpt>
      <trkpt lat="37.824640" lon="-120.011400">
        <ele>882.022</ele>
        <time>2018-12-29T03:14:00Z</time>
      </trkpt>
      <trkpt lat="37.824670" lon="-120.011300">
        <ele>881.955</ele>
        <time>2018-12-29T03:14:20Z</time>
      </trkpt>
      <trkpt lat="37.824730" lon="-120.011100">
        <ele>881.307</ele>
        <time>2018-12-29T03:14:40Z</time>
      </trkpt>
      <trkpt lat="37.824780" lon="-120.010860">
        <ele>880.817</ele>
        <time>2018-12-29T03:15:00Z</time>
      </trkpt>
      <trkpt lat="37.824800" lon="-120.010710">
        <ele>880.308</ele>
        <time>2018-12-29T03:15:20Z</time>
      </trkpt>
      <trkpt lat="37.824830" lon="-120.010550">
        <ele>880.598</ele>
        <time>2018-12-29T03:15:40Z</time>
      </trkpt>
      <trkpt lat="37.824820" lon="-120.010220">
        <ele>881.536</ele>
        <time>2018-12-29T03:16:00Z</time>
      </trkpt>
      <trkpt lat="37.824810" lon="-120.010050">
        <ele>882.411</ele>
        <time>2018-12-29T03:16:20Z</time>
      </trkpt>
      <trkpt lat="37.824750" lon="-120.009430">
        <ele>884.110</ele>
        <time>2018-12-29T03:16:40Z</time>
      </trkpt>
      <trkpt lat="37.824660" lon="-120.008560">
        <ele>887.574</ele>
        <time>2018-12-29T03:17:00Z</time>
      </trkpt>
      <trkpt lat="37.824630" lon="-120.008270">
        <ele>889.580</ele>
        <time>2018-12-29T03:17:20Z</time>
      </trkpt>
      <trkpt lat="37.824450" lon="-120.006420">
        <ele>900.517</ele>
        <time>2018-12-29T03:17:40Z</time>
      </trkpt>
      <trkpt lat="37.824440" lon="-120.006330">
        <ele>901.541</ele>
        <time>2018-12-29T03:18:00Z</time>
      </trkpt>
      <trkpt lat="37.824430" lon="-120.006250">
        <ele>902.574</ele>
        <time>2018-12-29T03:18:20Z</time>
      </trkpt>
      <trkpt lat="37.824410" lon="-120.006150">
        <ele>903.556</ele>
        <time>2018-12-29T03:18:40Z</time>
      </trkpt>
      <trkpt lat="37.824390" lon="-120.006090">
        <ele>904.221</ele>
        <time>2018-12-29T03:19:00Z</time>
      </trkpt>
      <trkpt lat="37.824370" lon="-120.006010">
        <ele>905.108</ele>
        <time>2018-12-29T03:19:20Z</time>
      </trkpt>
      <trkpt lat="37.824330" lon="-120.005900">
        <ele>906.580</ele>
        <time>2018-12-29T03:19:40Z</time>
      </trkpt>
      <trkpt lat="37.824290" lon="-120.005810">
        <ele>907.938</ele>
        <time>2018-12-29T03:20:00Z</time>
      </trkpt>
      <trkpt lat="37.824270" lon="-120.005770">
        <ele>908.563</ele>
        <time>2018-12-29T03:20:20Z</time>
      </trkpt>
      <trkpt lat="37.824200" lon="-120.005640">
        <ele>910.572</ele>
        <time>2018-12-29T03:20:40Z</time>
      </trkpt>
      <trkpt lat="37.824140" lon="-120.005550">
        <ele>911.826</ele>
        <time>2018-12-29T03:21:00Z</time>
      </trkpt>
      <trkpt lat="37.824110" lon="-120.005500">
        <ele>912.562</ele>
        <time>2018-12-29T03:21:20Z</time>
      </trkpt>
      <trkpt lat="37.824030" lon="-120.005390">
        <ele>914.219</ele>
        <time>2018-12-29T03:21:40Z</time>
      </trkpt>
      <trkpt lat="37.823960" lon="-120.005300">
        <ele>915.233</ele>
        <time>2018-12-29T03:22:00Z</time>
      </trkpt>
      <trkpt lat="37.823920" lon="-120.005260">
        <ele>915.722</ele>
        <time>2018-12-29T03:22:20Z</time>
      </trkpt>
      <trkpt lat="37.823880" lon="-120.005220">
        <ele>916.162</ele>
        <time>2018-12-29T03:22:40Z</time>
      </trkpt>
      <trkpt lat="37.823830" lon="-120.005170">
        <ele>916.608</ele>
        <time>2018-12-29T03:23:00Z</time>
      </trkpt>
      <trkpt lat="37.823790" lon="-120.005130">
        <ele>916.908</ele>
        <time>2018-12-29T03:23:20Z</time>
      </trkpt>
      <trkpt lat="37.823710" lon="-120.005080">
        <ele>917.665</ele>
        <time>2018-12-29T03:23:40Z</time>
      </trkpt>
      <trkpt lat="37.823620" lon="-120.005020">
        <ele>918.683</ele>
        <time>2018-12-29T03:24:00Z</time>
      </trkpt>
      <trkpt lat="37.823450" lon="-120.004930">
        <ele>921.398</ele>
        <time>2018-12-29T03:24:20Z</time>
      </trkpt>
      <trkpt lat="37.823370" lon="-120.004880">
        <ele>922.717</ele>
        <time>2018-12-29T03:24:40Z</time>
      </trkpt>
      <trkpt lat="37.823280" lon="-120.004820">
        <ele>924.391</ele>
        <time>2018-12-29T03:25:00Z</time>
      </trkpt>
      <trkpt lat="37.823230" lon="-120.004780">
        <ele>925.047</ele>
        <time>2018-12-29T03:25:20Z</time>
      </trkpt>
      <trkpt lat="37.823170" lon="-120.004730">
        <ele>926.024</ele>
        <time>2018-12-29T03:25:40Z</time>
      </trkpt>
      <trkpt lat="37.823110" lon="-120.004680">
        <ele>927.058</ele>
        <time>2018-12-29T03:26:00Z</time>
      </trkpt>
      <trkpt lat="37.823060" lon="-120.004640">
        <ele>927.958</ele>
        <time>2018-12-29T03:26:20Z</time>
      </trkpt>
      <trkpt lat="37.822970" lon="-120.004540">
        <ele>929.152</ele>
        <time>2018-12-29T03:26:40Z</time>
      </trkpt>
      <trkpt lat="37.822920" lon="-120.004490">
        <ele>929.617</ele>
        <time>2018-12-29T03:27:00Z</time>
      </trkpt>
      <trkpt lat="37.822880" lon="-120.004440">
        <ele>929.608</ele>
        <time>2018-12-29T03:27:20Z</time>
      </trkpt>
      <trkpt lat="37.822800" lon="-120.004340">
        <ele>929.478</ele>
        <time>2018-12-29T03:27:40Z</time>
      </trkpt>
      <trkpt lat="37.822760" lon="-120.004280">
        <ele>929.236</ele>
        <time>2018-12-29T03:28:00Z</time>
      </trkpt>
      <trkpt lat="37.822740" lon="-120.004240">
        <ele>929.191</ele>
        <time>2018-12-29T03:28:20Z</time>
      </trkpt>
      <trkpt lat="37.822670" lon="-120.004130">
        <ele>929.050</ele>
        <time>2018-12-29T03:28:40Z</time>
      </trkpt>
      <trkpt lat="37.822630" lon="-120.004040">
        <ele>928.674</ele>
        <time>2018-12-29T03:29:00Z</time>
      </trkpt>
      <trkpt lat="37.822600" lon="-120.003950">
        <ele>928.360</ele>
        <time>2018-12-29T03:29:20Z</time>
      </trkpt>
      <trkpt lat="37.822560" lon="-120.003860">
        <ele>928.027</ele>
        <time>2018-12-29T03:29:40Z</time>
      </trkpt>
      <trkpt lat="37.822530" lon="-120.003780">
        <ele>927.741</ele>
        <time>2018-12-29T03:30:00Z</time>
      </trkpt>
      <trkpt lat="37.822510" lon="-120.003710">
        <ele>927.587</ele>
        <time>2018-12-29T03:30:20Z</time>
      </trkpt>
      <trkpt lat="37.822480" lon="-120.003600">
        <ele>927.342</ele>
        <time>2018-12-29T03:30:40Z</time>
      </trkpt>
      <trkpt lat="37.822470" lon="-120.003500">
        <ele>927.126</ele>
        <time>2018-12-29T03:31:00Z</time>
      </trkpt>
      <trkpt lat="37.822450" lon="-120.003380">
        <ele>927.408</ele>
        <time>2018-12-29T03:31:20Z</time>
      </trkpt>
      <trkpt lat="37.822450" lon="-120.003250">
        <ele>927.981</ele>
        <time>2018-12-29T03:31:40Z</time>
      </trkpt>
      <trkpt lat="37.822450" lon="-120.003150">
        <ele>928.289</ele>
        <time>2018-12-29T03:32:00Z</time>
      </trkpt>
      <trkpt lat="37.822450" lon="-120.003070">
        <ele>928.694</ele>
        <time>2018-12-29T03:32:20Z</time>
      </trkpt>
      <trkpt lat="37.822460" lon="-120.002950">
        <ele>929.063</ele>
        <time>2018-12-29T03:32:40Z</time>
      </trkpt>
      <trkpt lat="37.822480" lon="-120.002870">
        <ele>929.577</ele>
        <time>2018-12-29T03:33:00Z</time>
      </trkpt>
      <trkpt lat="37.822490" lon="-120.002810">
        <ele>929.993</ele>
        <time>2018-12-29T03:33:20Z</time>
      </trkpt>
      <trkpt lat="37.822520" lon="-120.002660">
        <ele>930.940</ele>
        <time>2018-12-29T03:33:40Z</time>
      </trkpt>
      <trkpt lat="37.822550" lon="-120.002550">
        <ele>931.854</ele>
        <time>2018-12-29T03:34:00Z</time>
      </trkpt>
      <trkpt lat="37.822770" lon="-120.002050">
        <ele>933.923</ele>
        <time>2018-12-29T03:34:20Z</time>
      </trkpt>
      <trkpt lat="37.822860" lon="-120.001830">
        <ele>933.483</ele>
        <time>2018-12-29T03:34:40Z</time>
      </trkpt>
      <trkpt lat="37.822920" lon="-120.001680">
        <ele>933.111</ele>
        <time>2018-12-29T03:35:00Z</time>
      </trkpt>
      <trkpt lat="37.822990" lon="-120.001470">
        <ele>934.008</ele>
        <time>2018-12-29T03:35:20Z</time>
      </trkpt>
      <trkpt lat="37.823050" lon="-120.001270">
        <ele>935.215</ele>
        <time>2018-12-29T03:35:40Z</time>
      </trkpt>
      <trkpt lat="37.823070" lon="-120.001140">
        <ele>936.423</ele>
        <time>2018-12-29T03:36:00Z</time>
      </trkpt>
      <trkpt lat="37.823080" lon="-120.001040">
        <ele>937.478</ele>
        <time>2018-12-29T03:36:20Z</time>
      </trkpt>
      <trkpt lat="37.823090" lon="-120.000850">
        <ele>939.467</ele>
        <time>2018-12-29T03:36:40Z</time>
      </trkpt>
      <trkpt lat="37.823100" lon="-120.000700">
        <ele>940.981</ele>
        <time>2018-12-29T03:37:00Z</time>
      </trkpt>
      <trkpt lat="37.823090" lon="-120.000620">
        <ele>941.357</ele>
        <time>2018-12-29T03:37:20Z</time>
      </trkpt>
      <trkpt lat="37.823080" lon="-120.000480">
        <ele>941.984</ele>
        <time>2018-12-29T03:37:40Z</time>
      </trkpt>
      <trkpt lat="37.823060" lon="-120.000340">
        <ele>942.558</ele>
        <time>2018-12-29T03:38:00Z</time>
      </trkpt>
      <trkpt lat="37.823040" lon="-120.000220">
        <ele>942.743</ele>
        <time>2018-12-29T03:38:20Z</time>
      </trkpt>
      <trkpt lat="37.823020" lon="-120.000140">
        <ele>942.964</ele>
        <time>2018-12-29T03:38:40Z</time>
      </trkpt>
      <trkpt lat="37.822950" lon="-119.999910">
        <ele>940.510</ele>
        <time>2018-12-29T03:39:00Z</time>
      </trkpt>
      <trkpt lat="37.822900" lon="-119.999790">
        <ele>941.208</ele>
        <time>2018-12-29T03:39:20Z</time>
      </trkpt>
      <trkpt lat="37.822870" lon="-119.999710">
        <ele>941.777</ele>
        <time>2018-12-29T03:39:40Z</time>
      </trkpt>
      <trkpt lat="37.822820" lon="-119.999610">
        <ele>942.665</ele>
        <time>2018-12-29T03:40:00Z</time>
      </trkpt>
      <trkpt lat="37.822780" lon="-119.999530">
        <ele>943.740</ele>
        <time>2018-12-29T03:40:20Z</time>
      </trkpt>
      <trkpt lat="37.822740" lon="-119.999450">
        <ele>945.329</ele>
        <time>2018-12-29T03:40:40Z</time>
      </trkpt>
      <trkpt lat="37.822670" lon="-119.999340">
        <ele>948.773</ele>
        <time>2018-12-29T03:41:00Z</time>
      </trkpt>
      <trkpt lat="37.822520" lon="-119.999120">
        <ele>950.859</ele>
        <time>2018-12-29T03:41:20Z</time>
      </trkpt>
      <trkpt lat="37.822350" lon="-119.998890">
        <ele>952.866</ele>
        <time>2018-12-29T03:41:40Z</time>
      </trkpt>
      <trkpt lat="37.822200" lon="-119.998670">
        <ele>954.050</ele>
        <time>2018-12-29T03:42:00Z</time>
      </trkpt>
      <trkpt lat="37.821910" lon="-119.998250">
        <ele>958.144</ele>
        <time>2018-12-29T03:42:20Z</time>
      </trkpt>
      <trkpt lat="37.821650" lon="-119.997880">
        <ele>961.805</ele>
        <time>2018-12-29T03:42:40Z</time>
      </trkpt>
      <trkpt lat="37.821480" lon="-119.997640">
        <ele>967.815</ele>
        <time>2018-12-29T03:43:00Z</time>
      </trkpt>
      <trkpt lat="37.821350" lon="-119.997410">
        <ele>970.308</ele>
        <time>2018-12-29T03:43:20Z</time>
      </trkpt>
      <trkpt lat="37.821280" lon="-119.997250">
        <ele>971.287</ele>
        <time>2018-12-29T03:43:40Z</time>
      </trkpt>
      <trkpt lat="37.821230" lon="-119.997150">
        <ele>971.965</ele>
        <time>2018-12-29T03:44:00Z</time>
      </trkpt>
      <trkpt lat="37.821190" lon="-119.997040">
        <ele>972.170</ele>
        <time>2018-12-29T03:44:20Z</time>
      </trkpt>
      <trkpt lat="37.821160" lon="-119.996950">
        <ele>972.259</ele>
        <time>2018-12-29T03:44:40Z</time>
      </trkpt>
      <trkpt lat="37.821130" lon="-119.996840">
        <ele>972.123</ele>
        <time>2018-12-29T03:45:00Z</time>
      </trkpt>
      <trkpt lat="37.821110" lon="-119.996770">
        <ele>972.189</ele>
        <time>2018-12-29T03:45:20Z</time>
      </trkpt>
      <trkpt lat="37.821100" lon="-119.996700">
        <ele>971.936</ele>
        <time>2018-12-29T03:45:40Z</time>
      </trkpt>
      <trkpt lat="37.821080" lon="-119.996630">
        <ele>971.980</ele>
        <time>2018-12-29T03:46:00Z</time>
      </trkpt>
      <trkpt lat="37.821080" lon="-119.996560">
        <ele>971.512</ele>
        <time>2018-12-29T03:46:20Z</time>
      </trkpt>
      <trkpt lat="37.821060" lon="-119.996440">
        <ele>971.632</ele>
        <time>2018-12-29T03:46:40Z</time>
      </trkpt>
      <trkpt lat="37.821060" lon="-119.996310">
        <ele>971.205</ele>
        <time>2018-12-29T03:47:00Z</time>
      </trkpt>
      <trkpt lat="37.821060" lon="-119.996210">
        <ele>971.208</ele>
        <time>2018-12-29T03:47:20Z</time>
      </trkpt>
      <trkpt lat="37.821060" lon="-119.996120">
        <ele>971.424</ele>
        <time>2018-12-29T03:47:40Z</time>
      </trkpt>
      <trkpt lat="37.821060" lon="-119.996040">
        <ele>971.692</ele>
        <time>2018-12-29T03:48:00Z</time>
      </trkpt>
      <trkpt lat="37.821070" lon="-119.995890">
        <ele>972.157</ele>
        <time>2018-12-29T03:48:20Z</time>
      </trkpt>
      <trkpt lat="37.821090" lon="-119.995790">
        <ele>972.326</ele>
        <time>2018-12-29T03:48:40Z</time>
      </trkpt>
      <trkpt lat="37.821110" lon="-119.995670">
        <ele>972.790</ele>
        <time>2018-12-29T03:49:00Z</time>
      </trkpt>
      <trkpt lat="37.821130" lon="-119.995570">
        <ele>973.056</ele>
        <time>2018-12-29T03:49:20Z</time>
      </trkpt>
      <trkpt lat="37.821170" lon="-119.995450">
        <ele>973.273</ele>
        <time>2018-12-29T03:49:40Z</time>
      </trkpt>
      <trkpt lat="37.821200" lon="-119.995350">
        <ele>973.327</ele>
        <time>2018-12-29T03:50:00Z</time>
      </trkpt>
      <trkpt lat="37.821220" lon="-119.995310">
        <ele>973.259</ele>
        <time>2018-12-29T03:50:20Z</time>
      </trkpt>
      <trkpt lat="37.821240" lon="-119.995260">
        <ele>973.203</ele>
        <time>2018-12-29T03:50:40Z</time>
      </trkpt>
      <trkpt lat="37.821280" lon="-119.995180">
        <ele>973.523</ele>
        <time>2018-12-29T03:51:00Z</time>
      </trkpt>
      <trkpt lat="37.821380" lon="-119.995030">
        <ele>975.008</ele>
        <time>2018-12-29T03:51:20Z</time>
      </trkpt>
      <trkpt lat="37.821460" lon="-119.994900">
        <ele>976.368</ele>
        <time>2018-12-29T03:51:40Z</time>
      </trkpt>
      <trkpt lat="37.821600" lon="-119.994740">
        <ele>980.216</ele>
        <time>2018-12-29T03:52:00Z</time>
      </trkpt>
      <trkpt lat="37.821670" lon="-119.994660">
        <ele>982.021</ele>
        <time>2018-12-29T03:52:20Z</time>
      </trkpt>
      <trkpt lat="37.821920" lon="-119.994460">
        <ele>983.390</ele>
        <time>2018-12-29T03:52:40Z</time>
      </trkpt>
      <trkpt lat="37.822430" lon="-119.994160">
        <ele>989.424</ele>
        <time>2018-12-29T03:53:00Z</time>
      </trkpt>
      <trkpt lat="37.822700" lon="-119.993990">
        <ele>993.740</ele>
        <time>2018-12-29T03:53:20Z</time>
      </trkpt>
      <trkpt lat="37.822860" lon="-119.993880">
        <ele>994.857</ele>
        <time>2018-12-29T03:53:40Z</time>
      </trkpt>
      <trkpt lat="37.823010" lon="-119.993750">
        <ele>995.031</ele>
        <time>2018-12-29T03:54:00Z</time>
      </trkpt>
      <trkpt lat="37.823120" lon="-119.993650">
        <ele>995.276</ele>
        <time>2018-12-29T03:54:20Z</time>
      </trkpt>
      <trkpt lat="37.823210" lon="-119.993540">
        <ele>995.890</ele>
        <time>2018-12-29T03:54:40Z</time>
      </trkpt>
      <trkpt lat="37.823280" lon="-119.993440">
        <ele>996.319</ele>
        <time>2018-12-29T03:55:00Z</time>
      </trkpt>
      <trkpt lat="37.823340" lon="-119.993350">
        <ele>996.808</ele>
        <time>2018-12-29T03:55:20Z</time>
      </trkpt>
      <trkpt lat="37.823410" lon="-119.993220">
        <ele>997.840</ele>
        <time>2018-12-29T03:55:40Z</time>
      </trkpt>
      <trkpt lat="37.823490" lon="-119.993070">
        <ele>998.868</ele>
        <time>2018-12-29T03:56:00Z</time>
      </trkpt>
      <trkpt lat="37.823540" lon="-119.992940">
        <ele>1000.393</ele>
        <time>2018-12-29T03:56:20Z</time>
      </trkpt>
      <trkpt lat="37.823580" lon="-119.992820">
        <ele>1001.692</ele>
        <time>2018-12-29T03:56:40Z</time>
      </trkpt>
      <trkpt lat="37.823630" lon="-119.992670">
        <ele>1003.076</ele>
        <time>2018-12-29T03:57:00Z</time>
      </trkpt>
      <trkpt lat="37.823670" lon="-119.992480">
        <ele>1004.182</ele>
        <time>2018-12-29T03:57:20Z</time>
      </trkpt>
      <trkpt lat="37.823690" lon="-119.992360">
        <ele>1004.629</ele>
        <time>2018-12-29T03:57:40Z</time>
      </trkpt>
      <trkpt lat="37.823700" lon="-119.992230">
        <ele>1005.043</ele>
        <time>2018-12-29T03:58:00Z</time>
      </trkpt>
      <trkpt lat="37.823690" lon="-119.991900">
        <ele>1006.575</ele>
        <time>2018-12-29T03:58:20Z</time>
      </trkpt>
      <trkpt lat="37.823680" lon="-119.990710">
        <ele>1008.828</ele>
        <time>2018-12-29T03:58:40Z</time>
      </trkpt>
      <trkpt lat="37.823650" lon="-119.989940">
        <ele>1017.020</ele>
        <time>2018-12-29T03:59:00Z</time>
      </trkpt>
      <trkpt lat="37.823640" lon="-119.989320">
        <ele>1017.508</ele>
        <time>2018-12-29T03:59:20Z</time>
      </trkpt>
      <trkpt lat="37.823650" lon="-119.988920">
        <ele>1020.450</ele>
        <time>2018-12-29T03:59:40Z</time>
      </trkpt>
      <trkpt lat="37.823690" lon="-119.988710">
        <ele>1022.988</ele>
        <time>2018-12-29T04:00:00Z</time>
      </trkpt>
      <trkpt lat="37.823730" lon="-119.988550">
        <ele>1024.423</ele>
        <time>2018-12-29T04:00:20Z</time>
      </trkpt>
      <trkpt lat="37.823800" lon="-119.988340">
        <ele>1025.272</ele>
        <time>2018-12-29T04:00:40Z</time>
      </trkpt>
      <trkpt lat="37.823840" lon="-119.988240">
        <ele>1025.346</ele>
        <time>2018-12-29T04:01:00Z</time>
      </trkpt>
      <trkpt lat="37.823890" lon="-119.988150">
        <ele>1024.862</ele>
        <time>2018-12-29T04:01:20Z</time>
      </trkpt>
      <trkpt lat="37.823960" lon="-119.988030">
        <ele>1024.299</ele>
        <time>2018-12-29T04:01:40Z</time>
      </trkpt>
      <trkpt lat="37.824040" lon="-119.987920">
        <ele>1023.823</ele>
        <time>2018-12-29T04:02:00Z</time>
      </trkpt>
      <trkpt lat="37.824180" lon="-119.987760">
        <ele>1027.656</ele>
        <time>2018-12-29T04:02:20Z</time>
      </trkpt>
      <trkpt lat="37.824310" lon="-119.987640">
        <ele>1029.959</ele>
        <time>2018-12-29T04:02:40Z</time>
      </trkpt>
      <trkpt lat="37.824480" lon="-119.987520">
        <ele>1031.614</ele>
        <time>2018-12-29T04:03:00Z</time>
      </trkpt>
      <trkpt lat="37.824620" lon="-119.987440">
        <ele>1032.908</ele>
        <time>2018-12-29T04:03:20Z</time>
      </trkpt>
      <trkpt lat="37.824830" lon="-119.987380">
        <ele>1033.668</ele>
        <time>2018-12-29T04:03:40Z</time>
      </trkpt>
      <trkpt lat="37.825180" lon="-119.987290">
        <ele>1033.616</ele>
        <time>2018-12-29T04:04:00Z</time>
      </trkpt>
      <trkpt lat="37.825290" lon="-119.987260">
        <ele>1033.321</ele>
        <time>2018-12-29T04:04:20Z</time>
      </trkpt>
      <trkpt lat="37.825470" lon="-119.987150">
        <ele>1033.880</ele>
        <time>2018-12-29T04:04:40Z</time>
      </trkpt>
      <trkpt lat="37.825620" lon="-119.987040">
        <ele>1035.024</ele>
        <time>2018-12-29T04:05:00Z</time>
      </trkpt>
      <trkpt lat="37.826240" lon="-119.986470">
        <ele>1045.850</ele>
        <time>2018-12-29T04:05:20Z</time>
      </trkpt>
      <trkpt lat="37.826650" lon="-119.986080">
        <ele>1050.727</ele>
        <time>2018-12-29T04:05:40Z</time>
      </trkpt>
      <trkpt lat="37.826750" lon="-119.986000">
        <ele>1050.781</ele>
        <time>2018-12-29T04:06:00Z</time>
      </trkpt>
      <trkpt lat="37.827080" lon="-119.985710">
        <ele>1055.713</ele>
        <time>2018-12-29T04:06:20Z</time>
      </trkpt>
      <trkpt lat="37.827470" lon="-119.985350">
        <ele>1057.843</ele>
        <time>2018-12-29T04:06:40Z</time>
      </trkpt>
      <trkpt lat="37.827640" lon="-119.985190">
        <ele>1059.807</ele>
        <time>2018-12-29T04:07:00Z</time>
      </trkpt>
      <trkpt lat="37.827750" lon="-119.985100">
        <ele>1062.108</ele>
        <time>2018-12-29T04:07:20Z</time>
      </trkpt>
      <trkpt lat="37.827890" lon="-119.985000">
        <ele>1064.364</ele>
        <time>2018-12-29T04:07:40Z</time>
      </trkpt>
      <trkpt lat="37.828060" lon="-119.984900">
        <ele>1065.412</ele>
        <time>2018-12-29T04:08:00Z</time>
      </trkpt>
      <trkpt lat="37.828210" lon="-119.984800">
        <ele>1066.557</ele>
        <time>2018-12-29T04:08:20Z</time>
      </trkpt>
      <trkpt lat="37.828410" lon="-119.984710">
        <ele>1066.866</ele>
        <time>2018-12-29T04:08:40Z</time>
      </trkpt>
      <trkpt lat="37.828570" lon="-119.984630">
        <ele>1067.480</ele>
        <time>2018-12-29T04:09:00Z</time>
      </trkpt>
      <trkpt lat="37.828690" lon="-119.984540">
        <ele>1068.646</ele>
        <time>2018-12-29T04:09:20Z</time>
      </trkpt>
      <trkpt lat="37.828820" lon="-119.984430">
        <ele>1071.073</ele>
        <time>2018-12-29T04:09:40Z</time>
      </trkpt>
      <trkpt lat="37.828950" lon="-119.984330">
        <ele>1073.897</ele>
        <time>2018-12-29T04:10:00Z</time>
      </trkpt>
      <trkpt lat="37.829020" lon="-119.984260">
        <ele>1075.085</ele>
        <time>2018-12-29T04:10:20Z</time>
      </trkpt>
      <trkpt lat="37.829090" lon="-119.984180">
        <ele>1076.789</ele>
        <time>2018-12-29T04:10:40Z</time>
      </trkpt>
      <trkpt lat="37.829140" lon="-119.984120">
        <ele>1078.017</ele>
        <time>2018-12-29T04:11:00Z</time>
      </trkpt>
      <trkpt lat="37.829180" lon="-119.984050">
        <ele>1079.108</ele>
        <time>2018-12-29T04:11:20Z</time>
      </trkpt>
      <trkpt lat="37.829230" lon="-119.983970">
        <ele>1080.831</ele>
        <time>2018-12-29T04:11:40Z</time>
      </trkpt>
      <trkpt lat="37.829270" lon="-119.983890">
        <ele>1082.049</ele>
        <time>2018-12-29T04:12:00Z</time>
      </trkpt>
      <trkpt lat="37.829330" lon="-119.983750">
        <ele>1083.484</ele>
        <time>2018-12-29T04:12:20Z</time>
      </trkpt>
      <trkpt lat="37.829370" lon="-119.983650">
        <ele>1084.683</ele>
        <time>2018-12-29T04:12:40Z</time>
      </trkpt>
      <trkpt lat="37.829390" lon="-119.983550">
        <ele>1085.457</ele>
        <time>2018-12-29T04:13:00Z</time>
      </trkpt>
      <trkpt lat="37.829410" lon="-119.983450">
        <ele>1085.933</ele>
        <time>2018-12-29T04:13:20Z</time>
      </trkpt>
      <trkpt lat="37.829430" lon="-119.983360">
        <ele>1085.840</ele>
        <time>2018-12-29T04:13:40Z</time>
      </trkpt>
      <trkpt lat="37.829440" lon="-119.983250">
        <ele>1085.694</ele>
        <time>2018-12-29T04:14:00Z</time>
      </trkpt>
      <trkpt lat="37.829440" lon="-119.983130">
        <ele>1084.914</ele>
        <time>2018-12-29T04:14:20Z</time>
      </trkpt>
      <trkpt lat="37.829430" lon="-119.982960">
        <ele>1083.654</ele>
        <time>2018-12-29T04:14:40Z</time>
      </trkpt>
      <trkpt lat="37.829410" lon="-119.982800">
        <ele>1082.809</ele>
        <time>2018-12-29T04:15:00Z</time>
      </trkpt>
      <trkpt lat="37.829380" lon="-119.982650">
        <ele>1082.308</ele>
        <time>2018-12-29T04:15:20Z</time>
      </trkpt>
      <trkpt lat="37.829340" lon="-119.982520">
        <ele>1081.984</ele>
        <time>2018-12-29T04:15:40Z</time>
      </trkpt>
      <trkpt lat="37.829260" lon="-119.982280">
        <ele>1082.542</ele>
        <time>2018-12-29T04:16:00Z</time>
      </trkpt>
      <trkpt lat="37.829190" lon="-119.982100">
        <ele>1083.987</ele>
        <time>2018-12-29T04:16:20Z</time>
      </trkpt>
      <trkpt lat="37.829090" lon="-119.981920">
        <ele>1086.746</ele>
        <time>2018-12-29T04:16:40Z</time>
      </trkpt>
      <trkpt lat="37.829000" lon="-119.981790">
        <ele>1089.610</ele>
        <time>2018-12-29T04:17:00Z</time>
      </trkpt>
      <trkpt lat="37.828770" lon="-119.981460">
        <ele>1091.626</ele>
        <time>2018-12-29T04:17:20Z</time>
      </trkpt>
      <trkpt lat="37.828620" lon="-119.981230">
        <ele>1092.183</ele>
        <time>2018-12-29T04:17:40Z</time>
      </trkpt>
      <trkpt lat="37.828470" lon="-119.981020">
        <ele>1092.767</ele>
        <time>2018-12-29T04:18:00Z</time>
      </trkpt>
      <trkpt lat="37.828410" lon="-119.980920">
        <ele>1092.731</ele>
        <time>2018-12-29T04:18:20Z</time>
      </trkpt>
      <trkpt lat="37.828320" lon="-119.980720">
        <ele>1092.661</ele>
        <time>2018-12-29T04:18:40Z</time>
      </trkpt>
      <trkpt lat="37.828090" lon="-119.980270">
        <ele>1098.107</ele>
        <time>2018-12-29T04:19:00Z</time>
      </trkpt>
      <trkpt lat="37.828040" lon="-119.980150">
        <ele>1099.908</ele>
        <time>2018-12-29T04:19:20Z</time>
      </trkpt>
      <trkpt lat="37.827980" lon="-119.980010">
        <ele>1100.986</ele>
        <time>2018-12-29T04:19:40Z</time>
      </trkpt>
      <trkpt lat="37.827910" lon="-119.979810">
        <ele>1102.224</ele>
        <time>2018-12-29T04:20:00Z</time>
      </trkpt>
      <trkpt lat="37.827860" lon="-119.979650">
        <ele>1102.619</ele>
        <time>2018-12-29T04:20:20Z</time>
      </trkpt>
      <trkpt lat="37.827810" lon="-119.979480">
        <ele>1103.198</ele>
        <time>2018-12-29T04:20:40Z</time>
      </trkpt>
      <trkpt lat="37.827770" lon="-119.979350">
        <ele>1103.742</ele>
        <time>2018-12-29T04:21:00Z</time>
      </trkpt>
      <trkpt lat="37.827700" lon="-119.979080">
        <ele>1104.758</ele>
        <time>2018-12-29T04:21:20Z</time>
      </trkpt>
      <trkpt lat="37.827640" lon="-119.978760">
        <ele>1107.325</ele>
        <time>2018-12-29T04:21:40Z</time>
      </trkpt>
      <trkpt lat="37.827590" lon="-119.978430">
        <ele>1113.529</ele>
        <time>2018-12-29T04:22:00Z</time>
      </trkpt>
      <trkpt lat="37.827550" lon="-119.978050">
        <ele>1115.522</ele>
        <time>2018-12-29T04:22:20Z</time>
      </trkpt>
      <trkpt lat="37.827440" lon="-119.976940">
        <ele>1120.862</ele>
        <time>2018-12-29T04:22:40Z</time>
      </trkpt>
      <trkpt lat="37.827360" lon="-119.976190">
        <ele>1126.608</ele>
        <time>2018-12-29T04:23:00Z</time>
      </trkpt>
      <trkpt lat="37.827300" lon="-119.975590">
        <ele>1130.208</ele>
        <time>2018-12-29T04:23:20Z</time>
      </trkpt>
      <trkpt lat="37.827280" lon="-119.975450">
        <ele>1131.445</ele>
        <time>2018-12-29T04:23:40Z</time>
      </trkpt>
      <trkpt lat="37.827270" lon="-119.975340">
        <ele>1132.163</ele>
        <time>2018-12-29T04:24:00Z</time>
      </trkpt>
      <trkpt lat="37.827250" lon="-119.975230">
        <ele>1132.878</ele>
        <time>2018-12-29T04:24:20Z</time>
      </trkpt>
      <trkpt lat="37.827220" lon="-119.975090">
        <ele>1133.667</ele>
        <time>2018-12-29T04:24:40Z</time>
      </trkpt>
      <trkpt lat="37.827170" lon="-119.974920">
        <ele>1134.751</ele>
        <time>2018-12-29T04:25:00Z</time>
      </trkpt>
      <trkpt lat="37.827060" lon="-119.974680">
        <ele>1137.967</ele>
        <time>2018-12-29T04:25:20Z</time>
      </trkpt>
      <trkpt lat="37.826950" lon="-119.974470">
        <ele>1139.854</ele>
        <time>2018-12-29T04:25:40Z</time>
      </trkpt>
      <trkpt lat="37.826720" lon="-119.974040">
        <ele>1139.138</ele>
        <time>2018-12-29T04:26:00Z</time>
      </trkpt>
      <trkpt lat="37.826330" lon="-119.973570">
        <ele>1142.321</ele>
        <time>2018-12-29T04:26:20Z</time>
      </trkpt>
      <trkpt lat="37.826110" lon="-119.973320">
        <ele>1145.641</ele>
        <time>2018-12-29T04:26:40Z</time>
      </trkpt>
      <trkpt lat="37.825770" lon="-119.972930">
        <ele>1151.505</ele>
        <time>2018-12-29T04:27:00Z</time>
      </trkpt>
      <trkpt lat="37.825540" lon="-119.972680">
        <ele>1153.408</ele>
        <time>2018-12-29T04:27:20Z</time>
      </trkpt>
      <trkpt lat="37.825420" lon="-119.972530">
        <ele>1154.125</ele>
        <time>2018-12-29T04:27:40Z</time>
      </trkpt>
      <trkpt lat="37.825320" lon="-119.972390">
        <ele>1154.543</ele>
        <time>2018-12-29T04:28:00Z</time>
      </trkpt>
      <trkpt lat="37.825250" lon="-119.972270">
        <ele>1155.068</ele>
        <time>2018-12-29T04:28:20Z</time>
      </trkpt>
      <trkpt lat="37.825180" lon="-119.972150">
        <ele>1155.887</ele>
        <time>2018-12-29T04:28:40Z</time>
      </trkpt>
      <trkpt lat="37.825130" lon="-119.972040">
        <ele>1157.121</ele>
        <time>2018-12-29T04:29:00Z</time>
      </trkpt>
      <trkpt lat="37.825080" lon="-119.971940">
        <ele>1159.167</ele>
        <time>2018-12-29T04:29:20Z</time>
      </trkpt>
      <trkpt lat="37.825010" lon="-119.971760">
        <ele>1161.664</ele>
        <time>2018-12-29T04:29:40Z</time>
      </trkpt>
      <trkpt lat="37.824950" lon="-119.971600">
        <ele>1162.988</ele>
        <time>2018-12-29T04:30:00Z</time>
      </trkpt>
      <trkpt lat="37.824920" lon="-119.971490">
        <ele>1163.777</ele>
        <time>2018-12-29T04:30:20Z</time>
      </trkpt>
      <trkpt lat="37.824870" lon="-119.971310">
        <ele>1164.761</ele>
        <time>2018-12-29T04:30:40Z</time>
      </trkpt>
      <trkpt lat="37.824830" lon="-119.971150">
        <ele>1165.527</ele>
        <time>2018-12-29T04:31:00Z</time>
      </trkpt>
      <trkpt lat="37.824790" lon="-119.970920">
        <ele>1166.308</ele>
        <time>2018-12-29T04:31:20Z</time>
      </trkpt>
      <trkpt lat="37.824640" lon="-119.970240">
        <ele>1169.450</ele>
        <time>2018-12-29T04:31:40Z</time>
      </trkpt>
      <trkpt lat="37.824600" lon="-119.970050">
        <ele>1170.518</ele>
        <time>2018-12-29T04:32:00Z</time>
      </trkpt>
      <trkpt lat="37.824570" lon="-119.969950">
        <ele>1171.573</ele>
        <time>2018-12-29T04:32:20Z</time>
      </trkpt>
      <trkpt lat="37.824540" lon="-119.969840">
        <ele>1172.742</ele>
        <time>2018-12-29T04:32:40Z</time>
      </trkpt>
      <trkpt lat="37.824500" lon="-119.969720">
        <ele>1174.546</ele>
        <time>2018-12-29T04:33:00Z</time>
      </trkpt>
      <trkpt lat="37.824470" lon="-119.969620">
        <ele>1175.842</ele>
        <time>2018-12-29T04:33:20Z</time>
      </trkpt>
      <trkpt lat="37.824420" lon="-119.969500">
        <ele>1177.499</ele>
        <time>2018-12-29T04:33:40Z</time>
      </trkpt>
      <trkpt lat="37.824340" lon="-119.969350">
        <ele>1178.933</ele>
        <time>2018-12-29T04:34:00Z</time>
      </trkpt>
      <trkpt lat="37.824260" lon="-119.969180">
        <ele>1180.691</ele>
        <time>2018-12-29T04:34:20Z</time>
      </trkpt>
      <trkpt lat="37.824170" lon="-119.969020">
        <ele>1182.181</ele>
        <time>2018-12-29T04:34:40Z</time>
      </trkpt>
      <trkpt lat="37.824010" lon="-119.968760">
        <ele>1185.219</ele>
        <time>2018-12-29T04:35:00Z</time>
      </trkpt>
      <trkpt lat="37.823830" lon="-119.968490">
        <ele>1186.808</ele>
        <time>2018-12-29T04:35:20Z</time>
      </trkpt>
      <trkpt lat="37.823590" lon="-119.968180">
        <ele>1189.822</ele>
        <time>2018-12-29T04:35:40Z</time>
      </trkpt>
      <trkpt lat="37.823370" lon="-119.967910">
        <ele>1192.220</ele>
        <time>2018-12-29T04:36:00Z</time>
      </trkpt>
      <trkpt lat="37.823220" lon="-119.967690">
        <ele>1194.365</ele>
        <time>2018-12-29T04:36:20Z</time>
      </trkpt>
      <trkpt lat="37.823140" lon="-119.967590">
        <ele>1194.744</ele>
        <time>2018-12-29T04:36:40Z</time>
      </trkpt>
      <trkpt lat="37.823080" lon="-119.967500">
        <ele>1194.728</ele>
        <time>2018-12-29T04:37:00Z</time>
      </trkpt>
      <trkpt lat="37.823030" lon="-119.967390">
        <ele>1194.744</ele>
        <time>2018-12-29T04:37:20Z</time>
      </trkpt>
      <trkpt lat="37.822970" lon="-119.967280">
        <ele>1194.271</ele>
        <time>2018-12-29T04:37:40Z</time>
      </trkpt>
      <trkpt lat="37.822900" lon="-119.967130">
        <ele>1193.375</ele>
        <time>2018-12-29T04:38:00Z</time>
      </trkpt>
      <trkpt lat="37.822820" lon="-119.966960">
        <ele>1192.469</ele>
        <time>2018-12-29T04:38:20Z</time>
      </trkpt>
      <trkpt lat="37.822760" lon="-119.966780">
        <ele>1191.304</ele>
        <time>2018-12-29T04:38:40Z</time>
      </trkpt>
      <trkpt lat="37.822680" lon="-119.966550">
        <ele>1189.924</ele>
        <time>2018-12-29T04:39:00Z</time>
      </trkpt>
      <trkpt lat="37.822640" lon="-119.966380">
        <ele>1188.708</ele>
        <time>2018-12-29T04:39:20Z</time>
      </trkpt>
      <trkpt lat="37.822590" lon="-119.966180">
        <ele>1187.489</ele>
        <time>2018-12-29T04:39:40Z</time>
      </trkpt>
      <trkpt lat="37.822530" lon="-119.965820">
        <ele>1185.997</ele>
        <time>2018-12-29T04:40:00Z</time>
      </trkpt>
      <trkpt lat="37.822370" lon="-119.964470">
        <ele>1181.262</ele>
        <time>2018-12-29T04:40:20Z</time>
      </trkpt>
      <trkpt lat="37.822170" lon="-119.963080">
        <ele>1178.321</ele>
        <time>2018-12-29T04:40:40Z</time>
      </trkpt>
      <trkpt lat="37.821940" lon="-119.961330">
        <ele>1168.385</ele>
        <time>2018-12-29T04:41:00Z</time>
      </trkpt>
      <trkpt lat="37.821890" lon="-119.960970">
        <ele>1165.721</ele>
        <time>2018-12-29T04:41:20Z</time>
      </trkpt>
      <trkpt lat="37.821820" lon="-119.960410">
        <ele>1162.768</ele>
        <time>2018-12-29T04:41:40Z</time>
      </trkpt>
      <trkpt lat="37.821750" lon="-119.959840">
        <ele>1160.672</ele>
        <time>2018-12-29T04:42:00Z</time>
      </trkpt>
      <trkpt lat="37.821720" lon="-119.959680">
        <ele>1157.018</ele>
        <time>2018-12-29T04:42:20Z</time>
      </trkpt>
      <trkpt lat="37.821670" lon="-119.959390">
        <ele>1152.898</ele>
        <time>2018-12-29T04:42:40Z</time>
      </trkpt>
      <trkpt lat="37.821610" lon="-119.959150">
        <ele>1151.617</ele>
        <time>2018-12-29T04:43:00Z</time>
      </trkpt>
      <trkpt lat="37.821580" lon="-119.959060">
        <ele>1151.308</ele>
        <time>2018-12-29T04:43:20Z</time>
      </trkpt>
      <trkpt lat="37.821550" lon="-119.958960">
        <ele>1151.274</ele>
        <time>2018-12-29T04:43:40Z</time>
      </trkpt>
      <trkpt lat="37.821400" lon="-119.958630">
        <ele>1150.272</ele>
        <time>2018-12-29T04:44:00Z</time>
      </trkpt>
      <trkpt lat="37.821320" lon="-119.958460">
        <ele>1149.737</ele>
        <time>2018-12-29T04:44:20Z</time>
      </trkpt>
      <trkpt lat="37.821160" lon="-119.958200">
        <ele>1149.676</ele>
        <time>2018-12-29T04:44:40Z</time>
      </trkpt>
      <trkpt lat="37.821040" lon="-119.958040">
        <ele>1149.570</ele>
        <time>2018-12-29T04:45:00Z</time>
      </trkpt>
      <trkpt lat="37.820900" lon="-119.957880">
        <ele>1148.336</ele>
        <time>2018-12-29T04:45:20Z</time>
      </trkpt>
      <trkpt lat="37.820830" lon="-119.957810">
        <ele>1147.053</ele>
        <time>2018-12-29T04:45:40Z</time>
      </trkpt>
      <trkpt lat="37.820760" lon="-119.957740">
        <ele>1145.617</ele>
        <time>2018-12-29T04:46:00Z</time>
      </trkpt>
      <trkpt lat="37.820690" lon="-119.957690">
        <ele>1144.049</ele>
        <time>2018-12-29T04:46:20Z</time>
      </trkpt>
      <trkpt lat="37.820330" lon="-119.957380">
        <ele>1141.102</ele>
        <time>2018-12-29T04:46:40Z</time>
      </trkpt>
      <trkpt lat="37.819110" lon="-119.956370">
        <ele>1138.122</ele>
        <time>2018-12-29T04:47:00Z</time>
      </trkpt>
      <trkpt lat="37.818920" lon="-119.956210">
        <ele>1137.108</ele>
        <time>2018-12-29T04:47:20Z</time>
      </trkpt>
      <trkpt lat="37.818810" lon="-119.956110">
        <ele>1136.777</ele>
        <time>2018-12-29T04:47:40Z</time>
      </trkpt>
      <trkpt lat="37.818730" lon="-119.956030">
        <ele>1136.445</ele>
        <time>2018-12-29T04:48:00Z</time>
      </trkpt>
      <trkpt lat="37.818670" lon="-119.955970">
        <ele>1135.640</ele>
        <time>2018-12-29T04:48:20Z</time>
      </trkpt>
      <trkpt lat="37.818620" lon="-119.955890">
        <ele>1136.029</ele>
        <time>2018-12-29T04:48:40Z</time>
      </trkpt>
      <trkpt lat="37.818590" lon="-119.955830">
        <ele>1136.743</ele>
        <time>2018-12-29T04:49:00Z</time>
      </trkpt>
      <trkpt lat="37.818550" lon="-119.955770">
        <ele>1137.339</ele>
        <time>2018-12-29T04:49:20Z</time>
      </trkpt>
      <trkpt lat="37.818470" lon="-119.955600">
        <ele>1138.826</ele>
        <time>2018-12-29T04:49:40Z</time>
      </trkpt>
      <trkpt lat="37.818440" lon="-119.955490">
        <ele>1139.230</ele>
        <time>2018-12-29T04:50:00Z</time>
      </trkpt>
      <trkpt lat="37.818420" lon="-119.955410">
        <ele>1139.618</ele>
        <time>2018-12-29T04:50:20Z</time>
      </trkpt>
      <trkpt lat="37.818390" lon="-119.955310">
        <ele>1139.498</ele>
        <time>2018-12-29T04:50:40Z</time>
      </trkpt>
      <trkpt lat="37.818370" lon="-119.955180">
        <ele>1140.017</ele>
        <time>2018-12-29T04:51:00Z</time>
      </trkpt>
      <trkpt lat="37.818360" lon="-119.955140">
        <ele>1140.008</ele>
        <time>2018-12-29T04:51:20Z</time>
      </trkpt>
      <trkpt lat="37.818360" lon="-119.955090">
        <ele>1140.254</ele>
        <time>2018-12-29T04:51:40Z</time>
      </trkpt>
      <trkpt lat="37.818350" lon="-119.954980">
        <ele>1140.232</ele>
        <time>2018-12-29T04:52:00Z</time>
      </trkpt>
      <trkpt lat="37.818350" lon="-119.954850">
        <ele>1140.477</ele>
        <time>2018-12-29T04:52:20Z</time>
      </trkpt>
      <trkpt lat="37.818360" lon="-119.954750">
        <ele>1140.686</ele>
        <time>2018-12-29T04:52:40Z</time>
      </trkpt>
      <trkpt lat="37.818360" lon="-119.954670">
        <ele>1140.530</ele>
        <time>2018-12-29T04:53:00Z</time>
      </trkpt>
      <trkpt lat="37.818370" lon="-119.954570">
        <ele>1140.616</ele>
        <time>2018-12-29T04:53:20Z</time>
      </trkpt>
      <trkpt lat="37.818380" lon="-119.954520">
        <ele>1140.783</ele>
        <time>2018-12-29T04:53:40Z</time>
      </trkpt>
      <trkpt lat="37.818390" lon="-119.954440">
        <ele>1140.697</ele>
        <time>2018-12-29T04:54:00Z</time>
      </trkpt>
      <trkpt lat="37.818430" lon="-119.954290">
        <ele>1141.059</ele>
        <time>2018-12-29T04:54:20Z</time>
      </trkpt>
      <trkpt lat="37.818450" lon="-119.954240">
        <ele>1140.903</ele>
        <time>2018-12-29T04:54:40Z</time>
      </trkpt>
      <trkpt lat="37.818460" lon="-119.954200">
        <ele>1140.723</ele>
        <time>2018-12-29T04:55:00Z</time>
      </trkpt>
      <trkpt lat="37.818490" lon="-119.954130">
        <ele>1140.908</ele>
        <time>2018-12-29T04:55:20Z</time>
      </trkpt>
      <trkpt lat="37.818640" lon="-119.953790">
        <ele>1138.078</ele>
        <time>2018-12-29T04:55:40Z</time>
      </trkpt>
      <trkpt lat="37.818810" lon="-119.953340">
        <ele>1135.876</ele>
        <time>2018-12-29T04:56:00Z</time>
      </trkpt>
      <trkpt lat="37.818870" lon="-119.953160">
        <ele>1134.981</ele>
        <time>2018-12-29T04:56:20Z</time>
      </trkpt>
      <trkpt lat="37.818910" lon="-119.953050">
        <ele>1135.340</ele>
        <time>2018-12-29T04:56:40Z</time>
      </trkpt>
      <trkpt lat="37.818920" lon="-119.952990">
        <ele>1135.184</ele>
        <time>2018-12-29T04:57:00Z</time>
      </trkpt>
      <trkpt lat="37.818930" lon="-119.952920">
        <ele>1134.850</ele>
        <time>2018-12-29T04:57:20Z</time>
      </trkpt>
      <trkpt lat="37.818940" lon="-119.952840">
        <ele>1135.227</ele>
        <time>2018-12-29T04:57:40Z</time>
      </trkpt>
      <trkpt lat="37.818940" lon="-119.952700">
        <ele>1135.111</ele>
        <time>2018-12-29T04:58:00Z</time>
      </trkpt>
      <trkpt lat="37.818940" lon="-119.952580">
        <ele>1135.447</ele>
        <time>2018-12-29T04:58:20Z</time>
      </trkpt>
      <trkpt lat="37.818940" lon="-119.952470">
        <ele>1136.329</ele>
        <time>2018-12-29T04:58:40Z</time>
      </trkpt>
      <trkpt lat="37.818920" lon="-119.952330">
        <ele>1136.821</ele>
        <time>2018-12-29T04:59:00Z</time>
      </trkpt>
      <trkpt lat="37.818910" lon="-119.952250">
        <ele>1137.208</ele>
        <time>2018-12-29T04:59:20Z</time>
      </trkpt>
      <trkpt lat="37.818880" lon="-119.952120">
        <ele>1137.827</ele>
        <time>2018-12-29T04:59:40Z</time>
      </trkpt>
      <trkpt lat="37.818860" lon="-119.952030">
        <ele>1138.595</ele>
        <time>2018-12-29T05:00:00Z</time>
      </trkpt>
      <trkpt lat="37.818820" lon="-119.951930">
        <ele>1139.160</ele>
        <time>2018-12-29T05:00:20Z</time>
      </trkpt>
      <trkpt lat="37.818760" lon="-119.951790">
        <ele>1140.219</ele>
        <time>2018-12-29T05:00:40Z</time>
      </trkpt>
      <trkpt lat="37.818670" lon="-119.951640">
        <ele>1140.593</ele>
        <time>2018-12-29T05:01:00Z</time>
      </trkpt>
      <trkpt lat="37.818550" lon="-119.951460">
        <ele>1140.579</ele>
        <time>2018-12-29T05:01:20Z</time>
      </trkpt>
      <trkpt lat="37.818490" lon="-119.951390">
        <ele>1140.626</ele>
        <time>2018-12-29T05:01:40Z</time>
      </trkpt>
      <trkpt lat="37.818430" lon="-119.951330">
        <ele>1140.770</ele>
        <time>2018-12-29T05:02:00Z</time>
      </trkpt>
      <trkpt lat="37.818380" lon="-119.951280">
        <ele>1140.919</ele>
        <time>2018-12-29T05:02:20Z</time>
      </trkpt>
      <trkpt lat="37.818260" lon="-119.951200">
        <ele>1140.709</ele>
        <time>2018-12-29T05:02:40Z</time>
      </trkpt>
      <trkpt lat="37.817990" lon="-119.951010">
        <ele>1139.219</ele>
        <time>2018-12-29T05:03:00Z</time>
      </trkpt>
      <trkpt lat="37.817650" lon="-119.950790">
        <ele>1136.608</ele>
        <time>2018-12-29T05:03:20Z</time>
      </trkpt>
      <trkpt lat="37.817090" lon="-119.950410">
        <ele>1129.424</ele>
        <time>2018-12-29T05:03:40Z</time>
      </trkpt>
      <trkpt lat="37.816750" lon="-119.950170">
        <ele>1128.272</ele>
        <time>2018-12-29T05:04:00Z</time>
      </trkpt>
      <trkpt lat="37.816430" lon="-119.949930">
        <ele>1127.147</ele>
        <time>2018-12-29T05:04:20Z</time>
      </trkpt>
      <trkpt lat="37.816300" lon="-119.949820">
        <ele>1126.916</ele>
        <time>2018-12-29T05:04:40Z</time>
      </trkpt>
      <trkpt lat="37.816190" lon="-119.949730">
        <ele>1126.020</ele>
        <time>2018-12-29T05:05:00Z</time>
      </trkpt>
      <trkpt lat="37.816100" lon="-119.949640">
        <ele>1125.686</ele>
        <time>2018-12-29T05:05:20Z</time>
      </trkpt>
      <trkpt lat="37.816020" lon="-119.949540">
        <ele>1125.813</ele>
        <time>2018-12-29T05:05:40Z</time>
      </trkpt>
      <trkpt lat="37.815990" lon="-119.949470">
        <ele>1126.197</ele>
        <time>2018-12-29T05:06:00Z</time>
      </trkpt>
      <trkpt lat="37.815940" lon="-119.949390">
        <ele>1125.814</ele>
        <time>2018-12-29T05:06:20Z</time>
      </trkpt>
      <trkpt lat="37.815890" lon="-119.949290">
        <ele>1125.954</ele>
        <time>2018-12-29T05:06:40Z</time>
      </trkpt>
      <trkpt lat="37.815860" lon="-119.949200">
        <ele>1126.009</ele>
        <time>2018-12-29T05:07:00Z</time>
      </trkpt>
      <trkpt lat="37.815810" lon="-119.949050">
        <ele>1126.208</ele>
        <time>2018-12-29T05:07:20Z</time>
      </trkpt>
      <trkpt lat="37.815790" lon="-119.948950">
        <ele>1126.224</ele>
        <time>2018-12-29T05:07:40Z</time>
      </trkpt>
      <trkpt lat="37.815770" lon="-119.948880">
        <ele>1125.912</ele>
        <time>2018-12-29T05:08:00Z</time>
      </trkpt>
      <trkpt lat="37.815760" lon="-119.948820">
        <ele>1125.957</ele>
        <time>2018-12-29T05:08:20Z</time>
      </trkpt>
      <trkpt lat="37.815750" lon="-119.948740">
        <ele>1125.986</ele>
        <time>2018-12-29T05:08:40Z</time>
      </trkpt>
      <trkpt lat="37.815740" lon="-119.948680">
        <ele>1125.810</ele>
        <time>2018-12-29T05:09:00Z</time>
      </trkpt>
      <trkpt lat="37.815730" lon="-119.948650">
        <ele>1125.646</ele>
        <time>2018-12-29T05:09:20Z</time>
      </trkpt>
      <trkpt lat="37.815730" lon="-119.948600">
        <ele>1125.893</ele>
        <time>2018-12-29T05:09:40Z</time>
      </trkpt>
      <trkpt lat="37.815730" lon="-119.948550">
        <ele>1126.137</ele>
        <time>2018-12-29T05:10:00Z</time>
      </trkpt>
      <trkpt lat="37.815730" lon="-119.948490">
        <ele>1126.356</ele>
        <time>2018-12-29T05:10:20Z</time>
      </trkpt>
      <trkpt lat="37.815730" lon="-119.948370">
        <ele>1126.359</ele>
        <time>2018-12-29T05:10:40Z</time>
      </trkpt>
      <trkpt lat="37.815730" lon="-119.948310">
        <ele>1126.214</ele>
        <time>2018-12-29T05:11:00Z</time>
      </trkpt>
      <trkpt lat="37.815740" lon="-119.948280">
        <ele>1126.508</ele>
        <time>2018-12-29T05:11:20Z</time>
      </trkpt>
      <trkpt lat="37.815750" lon="-119.948220">
        <ele>1126.848</ele>
        <time>2018-12-29T05:11:40Z</time>
      </trkpt>
      <trkpt lat="37.815780" lon="-119.948100">
        <ele>1127.056</ele>
        <time>2018-12-29T05:12:00Z</time>
      </trkpt>
      <trkpt lat="37.815840" lon="-119.947850">
        <ele>1126.871</ele>
        <time>2018-12-29T05:12:20Z</time>
      </trkpt>
      <trkpt lat="37.815950" lon="-119.947460">
        <ele>1125.880</ele>
        <time>2018-12-29T05:12:40Z</time>
      </trkpt>
      <trkpt lat="37.816050" lon="-119.947100">
        <ele>1127.384</ele>
        <time>2018-12-29T05:13:00Z</time>
      </trkpt>
      <trkpt lat="37.816070" lon="-119.947020">
        <ele>1128.010</ele>
        <time>2018-12-29T05:13:20Z</time>
      </trkpt>
      <trkpt lat="37.816090" lon="-119.946920">
        <ele>1128.787</ele>
        <time>2018-12-29T05:13:40Z</time>
      </trkpt>
      <trkpt lat="37.816100" lon="-119.946860">
        <ele>1129.111</ele>
        <time>2018-12-29T05:14:00Z</time>
      </trkpt>
      <trkpt lat="37.816100" lon="-119.946710">
        <ele>1129.226</ele>
        <time>2018-12-29T05:14:20Z</time>
      </trkpt>
      <trkpt lat="37.816120" lon="-119.945380">
        <ele>1128.847</ele>
        <time>2018-12-29T05:14:40Z</time>
      </trkpt>
      <trkpt lat="37.816130" lon="-119.944950">
        <ele>1129.011</ele>
        <time>2018-12-29T05:15:00Z</time>
      </trkpt>
      <trkpt lat="37.816130" lon="-119.944810">
        <ele>1128.808</ele>
        <time>2018-12-29T05:15:20Z</time>
      </trkpt>
      <trkpt lat="37.816140" lon="-119.944700">
        <ele>1128.985</ele>
        <time>2018-12-29T05:15:40Z</time>
      </trkpt>
      <trkpt lat="37.816170" lon="-119.944460">
        <ele>1129.193</ele>
        <time>2018-12-29T05:16:00Z</time>
      </trkpt>
      <trkpt lat="37.816190" lon="-119.944290">
        <ele>1129.078</ele>
        <time>2018-12-29T05:16:20Z</time>
      </trkpt>
      <trkpt lat="37.816250" lon="-119.943990">
        <ele>1129.127</ele>
        <time>2018-12-29T05:16:40Z</time>
      </trkpt>
      <trkpt lat="37.816390" lon="-119.943430">
        <ele>1129.871</ele>
        <time>2018-12-29T05:17:00Z</time>
      </trkpt>
      <trkpt lat="37.816450" lon="-119.943170">
        <ele>1130.027</ele>
        <time>2018-12-29T05:17:20Z</time>
      </trkpt>
      <trkpt lat="37.816470" lon="-119.943100">
        <ele>1130.364</ele>
        <time>2018-12-29T05:17:40Z</time>
      </trkpt>
      <trkpt lat="37.816480" lon="-119.943000">
        <ele>1129.948</ele>
        <time>2018-12-29T05:18:00Z</time>
      </trkpt>
      <trkpt lat="37.816480" lon="-119.942930">
        <ele>1129.476</ele>
        <time>2018-12-29T05:18:20Z</time>
      </trkpt>
      <trkpt lat="37.816490" lon="-119.942860">
        <ele>1129.490</ele>
        <time>2018-12-29T05:18:40Z</time>
      </trkpt>
      <trkpt lat="37.816490" lon="-119.942800">
        <ele>1129.219</ele>
        <time>2018-12-29T05:19:00Z</time>
      </trkpt>
      <trkpt lat="37.816480" lon="-119.942700">
        <ele>1128.508</ele>
        <time>2018-12-29T05:19:20Z</time>
      </trkpt>
      <trkpt lat="37.816480" lon="-119.942610">
        <ele>1128.410</ele>
        <time>2018-12-29T05:19:40Z</time>
      </trkpt>
      <trkpt lat="37.816460" lon="-119.942460">
        <ele>1128.348</ele>
        <time>2018-12-29T05:20:00Z</time>
      </trkpt>
      <trkpt lat="37.816440" lon="-119.942370">
        <ele>1128.193</ele>
        <time>2018-12-29T05:20:20Z</time>
      </trkpt>
      <trkpt lat="37.816430" lon="-119.942280">
        <ele>1128.522</ele>
        <time>2018-12-29T05:20:40Z</time>
      </trkpt>
      <trkpt lat="37.816390" lon="-119.942140">
        <ele>1128.726</ele>
        <time>2018-12-29T05:21:00Z</time>
      </trkpt>
      <trkpt lat="37.816300" lon="-119.941900">
        <ele>1130.082</ele>
        <time>2018-12-29T05:21:20Z</time>
      </trkpt>
      <trkpt lat="37.816160" lon="-119.941560">
        <ele>1131.779</ele>
        <time>2018-12-29T05:21:40Z</time>
      </trkpt>
      <trkpt lat="37.816060" lon="-119.941320">
        <ele>1131.973</ele>
        <time>2018-12-29T05:22:00Z</time>
      </trkpt>
      <trkpt lat="37.816030" lon="-119.941240">
        <ele>1131.951</ele>
        <time>2018-12-29T05:22:20Z</time>
      </trkpt>
      <trkpt lat="37.816010" lon="-119.941160">
        <ele>1132.001</ele>
        <time>2018-12-29T05:22:40Z</time>
      </trkpt>
      <trkpt lat="37.815990" lon="-119.941080">
        <ele>1132.011</ele>
        <time>2018-12-29T05:23:00Z</time>
      </trkpt>
      <trkpt lat="37.815970" lon="-119.940960">
        <ele>1132.208</ele>
        <time>2018-12-29T05:23:20Z</time>
      </trkpt>
      <trkpt lat="37.815930" lon="-119.940830">
        <ele>1132.488</ele>
        <time>2018-12-29T05:23:40Z</time>
      </trkpt>
      <trkpt lat="37.815920" lon="-119.940700">
        <ele>1132.936</ele>
        <time>2018-12-29T05:24:00Z</time>
      </trkpt>
      <trkpt lat="37.815920" lon="-119.940590">
        <ele>1134.051</ele>
        <time>2018-12-29T05:24:20Z</time>
      </trkpt>
      <trkpt lat="37.815920" lon="-119.940480">
        <ele>1135.050</ele>
        <time>2018-12-29T05:24:40Z</time>
      </trkpt>
      <trkpt lat="37.815930" lon="-119.940390">
        <ele>1135.994</ele>
        <time>2018-12-29T05:25:00Z</time>
      </trkpt>
      <trkpt lat="37.815930" lon="-119.940310">
        <ele>1136.030</ele>
        <time>2018-12-29T05:25:20Z</time>
      </trkpt>
      <trkpt lat="37.815950" lon="-119.940240">
        <ele>1136.527</ele>
        <time>2018-12-29T05:25:40Z</time>
      </trkpt>
      <trkpt lat="37.815960" lon="-119.940180">
        <ele>1136.761</ele>
        <time>2018-12-29T05:26:00Z</time>
      </trkpt>
      <trkpt lat="37.815970" lon="-119.940130">
        <ele>1137.035</ele>
        <time>2018-12-29T05:26:20Z</time>
      </trkpt>
      <trkpt lat="37.816000" lon="-119.940030">
        <ele>1137.486</ele>
        <time>2018-12-29T05:26:40Z</time>
      </trkpt>
      <trkpt lat="37.816050" lon="-119.939870">
        <ele>1138.114</ele>
        <time>2018-12-29T05:27:00Z</time>
      </trkpt>
      <trkpt lat="37.816160" lon="-119.939580">
        <ele>1140.508</ele>
        <time>2018-12-29T05:27:20Z</time>
      </trkpt>
      <trkpt lat="37.816250" lon="-119.939260">
        <ele>1140.336</ele>
        <time>2018-12-29T05:27:40Z</time>
      </trkpt>
      <trkpt lat="37.816280" lon="-119.939120">
        <ele>1139.114</ele>
        <time>2018-12-29T05:28:00Z</time>
      </trkpt>
      <trkpt lat="37.816300" lon="-119.939000">
        <ele>1138.149</ele>
        <time>2018-12-29T05:28:20Z</time>
      </trkpt>
      <trkpt lat="37.816310" lon="-119.938940">
        <ele>1137.938</ele>
        <time>2018-12-29T05:28:40Z</time>
      </trkpt>
      <trkpt lat="37.816310" lon="-119.938850">
        <ele>1137.282</ele>
        <time>2018-12-29T05:29:00Z</time>
      </trkpt>
      <trkpt lat="37.816320" lon="-119.938730">
        <ele>1136.878</ele>
        <time>2018-12-29T05:29:20Z</time>
      </trkpt>
      <trkpt lat="37.816310" lon="-119.938580">
        <ele>1136.835</ele>
        <time>2018-12-29T05:29:40Z</time>
      </trkpt>
      <trkpt lat="37.816300" lon="-119.938420">
        <ele>1137.019</ele>
        <time>2018-12-29T05:30:00Z</time>
      </trkpt>
      <trkpt lat="37.816250" lon="-119.938200">
        <ele>1137.233</ele>
        <time>2018-12-29T05:30:20Z</time>
      </trkpt>
      <trkpt lat="37.816230" lon="-119.938130">
        <ele>1137.223</ele>
        <time>2018-12-29T05:30:40Z</time>
      </trkpt>
      <trkpt lat="37.816220" lon="-119.938080">
        <ele>1137.515</ele>
        <time>2018-12-29T05:31:00Z</time>
      </trkpt>
      <trkpt lat="37.816220" lon="-119.938060">
        <ele>1137.808</ele>
        <time>2018-12-29T05:31:20Z</time>
      </trkpt>
      <trkpt lat="37.816230" lon="-119.937980">
        <ele>1139.096</ele>
        <time>2018-12-29T05:31:40Z</time>
      </trkpt>
      <trkpt lat="37.816170" lon="-119.937850">
        <ele>1139.494</ele>
        <time>2018-12-29T05:32:00Z</time>
      </trkpt>
      <trkpt lat="37.816050" lon="-119.937540">
        <ele>1140.719</ele>
        <time>2018-12-29T05:32:20Z</time>
      </trkpt>
      <trkpt lat="37.815870" lon="-119.937080">
        <ele>1140.748</ele>
        <time>2018-12-29T05:32:40Z</time>
      </trkpt>
      <trkpt lat="37.815800" lon="-119.936900">
        <ele>1140.062</ele>
        <time>2018-12-29T05:33:00Z</time>
      </trkpt>
      <trkpt lat="37.815710" lon="-119.936630">
        <ele>1139.438</ele>
        <time>2018-12-29T05:33:20Z</time>
      </trkpt>
      <trkpt lat="37.815620" lon="-119.936270">
        <ele>1140.625</ele>
        <time>2018-12-29T05:33:40Z</time>
      </trkpt>
      <trkpt lat="37.815460" lon="-119.935580">
        <ele>1149.889</ele>
        <time>2018-12-29T05:34:00Z</time>
      </trkpt>
      <trkpt lat="37.815310" lon="-119.934920">
        <ele>1148.978</ele>
        <time>2018-12-29T05:34:20Z</time>
      </trkpt>
      <trkpt lat="37.815250" lon="-119.934650">
        <ele>1149.333</ele>
        <time>2018-12-29T05:34:40Z</time>
      </trkpt>
      <trkpt lat="37.815190" lon="-119.934340">
        <ele>1149.926</ele>
        <time>2018-12-29T05:35:00Z</time>
      </trkpt>
      <trkpt lat="37.815150" lon="-119.934080">
        <ele>1149.608</ele>
        <time>2018-12-29T05:35:20Z</time>
      </trkpt>
      <trkpt lat="37.815140" lon="-119.933830">
        <ele>1150.030</ele>
        <time>2018-12-29T05:35:40Z</time>
      </trkpt>
      <trkpt lat="37.815140" lon="-119.933640">
        <ele>1150.338</ele>
        <time>2018-12-29T05:36:00Z</time>
      </trkpt>
      <trkpt lat="37.815160" lon="-119.933450">
        <ele>1150.663</ele>
        <time>2018-12-29T05:36:20Z</time>
      </trkpt>
      <trkpt lat="37.815210" lon="-119.933250">
        <ele>1151.252</ele>
        <time>2018-12-29T05:36:40Z</time>
      </trkpt>
      <trkpt lat="37.815300" lon="-119.933010">
        <ele>1151.916</ele>
        <time>2018-12-29T05:37:00Z</time>
      </trkpt>
      <trkpt lat="37.815470" lon="-119.932680">
        <ele>1152.212</ele>
        <time>2018-12-29T05:37:20Z</time>
      </trkpt>
      <trkpt lat="37.815550" lon="-119.932580">
        <ele>1152.559</ele>
        <time>2018-12-29T05:37:40Z</time>
      </trkpt>
      <trkpt lat="37.815630" lon="-119.932490">
        <ele>1152.713</ele>
        <time>2018-12-29T05:38:00Z</time>
      </trkpt>
      <trkpt lat="37.815810" lon="-119.932310">
        <ele>1153.532</ele>
        <time>2018-12-29T05:38:20Z</time>
      </trkpt>
      <trkpt lat="37.815950" lon="-119.932180">
        <ele>1153.892</ele>
        <time>2018-12-29T05:38:40Z</time>
      </trkpt>
      <trkpt lat="37.816060" lon="-119.932070">
        <ele>1153.811</ele>
        <time>2018-12-29T05:39:00Z</time>
      </trkpt>
      <trkpt lat="37.816170" lon="-119.931950">
        <ele>1153.508</ele>
        <time>2018-12-29T05:39:20Z</time>
      </trkpt>
      <trkpt lat="37.816240" lon="-119.931860">
        <ele>1153.166</ele>
        <time>2018-12-29T05:39:40Z</time>
      </trkpt>
      <trkpt lat="37.816300" lon="-119.931750">
        <ele>1152.594</ele>
        <time>2018-12-29T05:40:00Z</time>
      </trkpt>
      <trkpt lat="37.816360" lon="-119.931660">
        <ele>1152.639</ele>
        <time>2018-12-29T05:40:20Z</time>
      </trkpt>
      <trkpt lat="37.816400" lon="-119.931560">
        <ele>1152.468</ele>
        <time>2018-12-29T05:40:40Z</time>
      </trkpt>
      <trkpt lat="37.816440" lon="-119.931470">
        <ele>1152.722</ele>
        <time>2018-12-29T05:41:00Z</time>
      </trkpt>
      <trkpt lat="37.816490" lon="-119.931320">
        <ele>1152.928</ele>
        <time>2018-12-29T05:41:20Z</time>
      </trkpt>
      <trkpt lat="37.816530" lon="-119.931150">
        <ele>1154.415</ele>
        <time>2018-12-29T05:41:40Z</time>
      </trkpt>
      <trkpt lat="37.816550" lon="-119.931020">
        <ele>1156.499</ele>
        <time>2018-12-29T05:42:00Z</time>
      </trkpt>
      <trkpt lat="37.816560" lon="-119.930940">
        <ele>1157.661</ele>
        <time>2018-12-29T05:42:20Z</time>
      </trkpt>
      <trkpt lat="37.816570" lon="-119.930850">
        <ele>1159.121</ele>
        <time>2018-12-29T05:42:40Z</time>
      </trkpt>
      <trkpt lat="37.816570" lon="-119.930770">
        <ele>1160.213</ele>
        <time>2018-12-29T05:43:00Z</time>
      </trkpt>
      <trkpt lat="37.816570" lon="-119.930710">
        <ele>1161.008</ele>
        <time>2018-12-29T05:43:20Z</time>
      </trkpt>
      <trkpt lat="37.816570" lon="-119.930570">
        <ele>1163.779</ele>
        <time>2018-12-29T05:43:40Z</time>
      </trkpt>
      <trkpt lat="37.816560" lon="-119.930470">
        <ele>1165.567</ele>
        <time>2018-12-29T05:44:00Z</time>
      </trkpt>
      <trkpt lat="37.816530" lon="-119.930320">
        <ele>1166.712</ele>
        <time>2018-12-29T05:44:20Z</time>
      </trkpt>
      <trkpt lat="37.816480" lon="-119.930100">
        <ele>1167.611</ele>
        <time>2018-12-29T05:44:40Z</time>
      </trkpt>
      <trkpt lat="37.816440" lon="-119.929930">
        <ele>1167.665</ele>
        <time>2018-12-29T05:45:00Z</time>
      </trkpt>
      <trkpt lat="37.816370" lon="-119.929650">
        <ele>1167.171</ele>
        <time>2018-12-29T05:45:20Z</time>
      </trkpt>
      <trkpt lat="37.816350" lon="-119.929570">
        <ele>1166.938</ele>
        <time>2018-12-29T05:45:40Z</time>
      </trkpt>
      <trkpt lat="37.816340" lon="-119.929520">
        <ele>1166.412</ele>
        <time>2018-12-29T05:46:00Z</time>
      </trkpt>
      <trkpt lat="37.816340" lon="-119.929490">
        <ele>1166.155</ele>
        <time>2018-12-29T05:46:20Z</time>
      </trkpt>
      <trkpt lat="37.816320" lon="-119.929230">
        <ele>1164.007</ele>
        <time>2018-12-29T05:46:40Z</time>
      </trkpt>
      <trkpt lat="37.816320" lon="-119.929130">
        <ele>1163.617</ele>
        <time>2018-12-29T05:47:00Z</time>
      </trkpt>
      <trkpt lat="37.816320" lon="-119.929040">
        <ele>1163.308</ele>
        <time>2018-12-29T05:47:20Z</time>
      </trkpt>
      <trkpt lat="37.816320" lon="-119.928950">
        <ele>1163.128</ele>
        <time>2018-12-29T05:47:40Z</time>
      </trkpt>
      <trkpt lat="37.816340" lon="-119.928790">
        <ele>1163.246</ele>
        <time>2018-12-29T05:48:00Z</time>
      </trkpt>
      <trkpt lat="37.816350" lon="-119.928720">
        <ele>1163.311</ele>
        <time>2018-12-29T05:48:20Z</time>
      </trkpt>
      <trkpt lat="37.816370" lon="-119.928650">
        <ele>1163.750</ele>
        <time>2018-12-29T05:48:40Z</time>
      </trkpt>
      <trkpt lat="37.816380" lon="-119.928590">
        <ele>1163.844</ele>
        <time>2018-12-29T05:49:00Z</time>
      </trkpt>
      <trkpt lat="37.816440" lon="-119.928390">
        <ele>1164.520</ele>
        <time>2018-12-29T05:49:20Z</time>
      </trkpt>
      <trkpt lat="37.816590" lon="-119.927870">
        <ele>1163.457</ele>
        <time>2018-12-29T05:49:40Z</time>
      </trkpt>
      <trkpt lat="37.816770" lon="-119.927320">
        <ele>1161.481</ele>
        <time>2018-12-29T05:50:00Z</time>
      </trkpt>
      <trkpt lat="37.817120" lon="-119.926190">
        <ele>1154.579</ele>
        <time>2018-12-29T05:50:20Z</time>
      </trkpt>
      <trkpt lat="37.817500" lon="-119.924980">
        <ele>1155.305</ele>
        <time>2018-12-29T05:50:40Z</time>
      </trkpt>
      <trkpt lat="37.817860" lon="-119.923840">
        <ele>1155.425</ele>
        <time>2018-12-29T05:51:00Z</time>
      </trkpt>
      <trkpt lat="37.818030" lon="-119.923260">
        <ele>1149.408</ele>
        <time>2018-12-29T05:51:20Z</time>
      </trkpt>
      <trkpt lat="37.818380" lon="-119.922140">
        <ele>1146.210</ele>
        <time>2018-12-29T05:51:40Z</time>
      </trkpt>
      <trkpt lat="37.818420" lon="-119.922030">
        <ele>1145.148</ele>
        <time>2018-12-29T05:52:00Z</time>
      </trkpt>
      <trkpt lat="37.818480" lon="-119.921900">
        <ele>1144.573</ele>
        <time>2018-12-29T05:52:20Z</time>
      </trkpt>
      <trkpt lat="37.818520" lon="-119.921800">
        <ele>1144.382</ele>
        <time>2018-12-29T05:52:40Z</time>
      </trkpt>
      <trkpt lat="37.818570" lon="-119.921700">
        <ele>1144.266</ele>
        <time>2018-12-29T05:53:00Z</time>
      </trkpt>
      <trkpt lat="37.818610" lon="-119.921640">
        <ele>1144.262</ele>
        <time>2018-12-29T05:53:20Z</time>
      </trkpt>
      <trkpt lat="37.818640" lon="-119.921590">
        <ele>1144.129</ele>
        <time>2018-12-29T05:53:40Z</time>
      </trkpt>
      <trkpt lat="37.818690" lon="-119.921510">
        <ele>1144.033</ele>
        <time>2018-12-29T05:54:00Z</time>
      </trkpt>
      <trkpt lat="37.818750" lon="-119.921450">
        <ele>1144.133</ele>
        <time>2018-12-29T05:54:20Z</time>
      </trkpt>
      <trkpt lat="37.818820" lon="-119.921370">
        <ele>1144.023</ele>
        <time>2018-12-29T05:54:40Z</time>
      </trkpt>
      <trkpt lat="37.818910" lon="-119.921270">
        <ele>1143.715</ele>
        <time>2018-12-29T05:55:00Z</time>
      </trkpt>
      <trkpt lat="37.819000" lon="-119.921200">
        <ele>1143.408</ele>
        <time>2018-12-29T05:55:20Z</time>
      </trkpt>
      <trkpt lat="37.819100" lon="-119.921140">
        <ele>1143.346</ele>
        <time>2018-12-29T05:55:40Z</time>
      </trkpt>
      <trkpt lat="37.819240" lon="-119.921060">
        <ele>1143.444</ele>
        <time>2018-12-29T05:56:00Z</time>
      </trkpt>
      <trkpt lat="37.819390" lon="-119.921000">
        <ele>1143.849</ele>
        <time>2018-12-29T05:56:20Z</time>
      </trkpt>
      <trkpt lat="37.819760" lon="-119.920840">
        <ele>1144.668</ele>
        <time>2018-12-29T05:56:40Z</time>
      </trkpt>
      <trkpt lat="37.819940" lon="-119.920740">
        <ele>1144.492</ele>
        <time>2018-12-29T05:57:00Z</time>
      </trkpt>
      <trkpt lat="37.820050" lon="-119.920660">
        <ele>1143.748</ele>
        <time>2018-12-29T05:57:20Z</time>
      </trkpt>
      <trkpt lat="37.820200" lon="-119.920520">
        <ele>1141.555</ele>
        <time>2018-12-29T05:57:40Z</time>
      </trkpt>
      <trkpt lat="37.820300" lon="-119.920390">
        <ele>1138.579</ele>
        <time>2018-12-29T05:58:00Z</time>
      </trkpt>
      <trkpt lat="37.820360" lon="-119.920290">
        <ele>1136.732</ele>
        <time>2018-12-29T05:58:20Z</time>
      </trkpt>
      <trkpt lat="37.820430" lon="-119.920160">
        <ele>1134.692</ele>
        <time>2018-12-29T05:58:40Z</time>
      </trkpt>
      <trkpt lat="37.820480" lon="-119.920060">
        <ele>1133.411</ele>
        <time>2018-12-29T05:59:00Z</time>
      </trkpt>
      <trkpt lat="37.820540" lon="-119.919900">
        <ele>1131.808</ele>
        <time>2018-12-29T05:59:20Z</time>
      </trkpt>
      <trkpt lat="37.820590" lon="-119.919730">
        <ele>1130.296</ele>
        <time>2018-12-29T05:59:40Z</time>
      </trkpt>
      <trkpt lat="37.820620" lon="-119.919610">
        <ele>1129.154</ele>
        <time>2018-12-29T06:00:00Z</time>
      </trkpt>
      <trkpt lat="37.820640" lon="-119.919530">
        <ele>1128.369</ele>
        <time>2018-12-29T06:00:20Z</time>
      </trkpt>
      <trkpt lat="37.820670" lon="-119.919380">
        <ele>1127.038</ele>
        <time>2018-12-29T06:00:40Z</time>
      </trkpt>
      <trkpt lat="37.820780" lon="-119.918800">
        <ele>1125.632</ele>
        <time>2018-12-29T06:01:00Z</time>
      </trkpt>
      <trkpt lat="37.820810" lon="-119.918650">
        <ele>1127.548</ele>
        <time>2018-12-29T06:01:20Z</time>
      </trkpt>
      <trkpt lat="37.820830" lon="-119.918570">
        <ele>1128.825</ele>
        <time>2018-12-29T06:01:40Z</time>
      </trkpt>
      <trkpt lat="37.820850" lon="-119.918510">
        <ele>1129.779</ele>
        <time>2018-12-29T06:02:00Z</time>
      </trkpt>
      <trkpt lat="37.820890" lon="-119.918400">
        <ele>1131.442</ele>
        <time>2018-12-29T06:02:20Z</time>
      </trkpt>
      <trkpt lat="37.820940" lon="-119.918280">
        <ele>1133.222</ele>
        <time>2018-12-29T06:02:40Z</time>
      </trkpt>
      <trkpt lat="37.820980" lon="-119.918200">
        <ele>1134.314</ele>
        <time>2018-12-29T06:03:00Z</time>
      </trkpt>
      <trkpt lat="37.821020" lon="-119.918120">
        <ele>1135.308</ele>
        <time>2018-12-29T06:03:20Z</time>
      </trkpt>
      <trkpt lat="37.821090" lon="-119.918020">
        <ele>1136.467</ele>
        <time>2018-12-29T06:03:40Z</time>
      </trkpt>
      <trkpt lat="37.821150" lon="-119.917920">
        <ele>1137.365</ele>
        <time>2018-12-29T06:04:00Z</time>
      </trkpt>
      <trkpt lat="37.821260" lon="-119.917800">
        <ele>1138.480</ele>
        <time>2018-12-29T06:04:20Z</time>
      </trkpt>
      <trkpt lat="37.821380" lon="-119.917680">
        <ele>1138.739</ele>
        <time>2018-12-29T06:04:40Z</time>
      </trkpt>
      <trkpt lat="37.821450" lon="-119.917620">
        <ele>1138.983</ele>
        <time>2018-12-29T06:05:00Z</time>
      </trkpt>
      <trkpt lat="37.821710" lon="-119.917380">
        <ele>1139.789</ele>
        <time>2018-12-29T06:05:20Z</time>
      </trkpt>
      <trkpt lat="37.821800" lon="-119.917290">
        <ele>1139.926</ele>
        <time>2018-12-29T06:05:40Z</time>
      </trkpt>
      <trkpt lat="37.821860" lon="-119.917230">
        <ele>1139.930</ele>
        <time>2018-12-29T06:06:00Z</time>
      </trkpt>
      <trkpt lat="37.821940" lon="-119.917130">
        <ele>1140.391</ele>
        <time>2018-12-29T06:06:20Z</time>
      </trkpt>
      <trkpt lat="37.821990" lon="-119.917050">
        <ele>1140.881</ele>
        <time>2018-12-29T06:06:40Z</time>
      </trkpt>
      <trkpt lat="37.822060" lon="-119.916930">
        <ele>1141.419</ele>
        <time>2018-12-29T06:07:00Z</time>
      </trkpt>
      <trkpt lat="37.822110" lon="-119.916810">
        <ele>1142.208</ele>
        <time>2018-12-29T06:07:20Z</time>
      </trkpt>
      <trkpt lat="37.822130" lon="-119.916770">
        <ele>1142.452</ele>
        <time>2018-12-29T06:07:40Z</time>
      </trkpt>
      <trkpt lat="37.822150" lon="-119.916710">
        <ele>1143.060</ele>
        <time>2018-12-29T06:08:00Z</time>
      </trkpt>
      <trkpt lat="37.822230" lon="-119.916460">
        <ele>1146.375</ele>
        <time>2018-12-29T06:08:20Z</time>
      </trkpt>
      <trkpt lat="37.822240" lon="-119.916410">
        <ele>1147.084</ele>
        <time>2018-12-29T06:08:40Z</time>
      </trkpt>
      <trkpt lat="37.822260" lon="-119.916330">
        <ele>1148.078</ele>
        <time>2018-12-29T06:09:00Z</time>
      </trkpt>
      <trkpt lat="37.822270" lon="-119.916220">
        <ele>1149.394</ele>
        <time>2018-12-29T06:09:20Z</time>
      </trkpt>
      <trkpt lat="37.822280" lon="-119.916150">
        <ele>1149.421</ele>
        <time>2018-12-29T06:09:40Z</time>
      </trkpt>
      <trkpt lat="37.822280" lon="-119.916070">
        <ele>1149.755</ele>
        <time>2018-12-29T06:10:00Z</time>
      </trkpt>
      <trkpt lat="37.822280" lon="-119.915960">
        <ele>1150.197</ele>
        <time>2018-12-29T06:10:20Z</time>
      </trkpt>
      <trkpt lat="37.822280" lon="-119.915860">
        <ele>1150.123</ele>
        <time>2018-12-29T06:10:40Z</time>
      </trkpt>
      <trkpt lat="37.822270" lon="-119.915750">
        <ele>1150.425</ele>
        <time>2018-12-29T06:11:00Z</time>
      </trkpt>
      <trkpt lat="37.822250" lon="-119.915610">
        <ele>1150.908</ele>
        <time>2018-12-29T06:11:20Z</time>
      </trkpt>
      <trkpt lat="37.822230" lon="-119.915510">
        <ele>1151.392</ele>
        <time>2018-12-29T06:11:40Z</time>
      </trkpt>
      <trkpt lat="37.822210" lon="-119.915440">
        <ele>1151.880</ele>
        <time>2018-12-29T06:12:00Z</time>
      </trkpt>
      <trkpt lat="37.822190" lon="-119.915370">
        <ele>1152.125</ele>
        <time>2018-12-29T06:12:20Z</time>
      </trkpt>
      <trkpt lat="37.822140" lon="-119.915220">
        <ele>1152.964</ele>
        <time>2018-12-29T06:12:40Z</time>
      </trkpt>
      <trkpt lat="37.822100" lon="-119.915140">
        <ele>1153.688</ele>
        <time>2018-12-29T06:13:00Z</time>
      </trkpt>
      <trkpt lat="37.822050" lon="-119.915030">
        <ele>1154.054</ele>
        <time>2018-12-29T06:13:20Z</time>
      </trkpt>
      <trkpt lat="37.821940" lon="-119.914850">
        <ele>1155.021</ele>
        <time>2018-12-29T06:13:40Z</time>
      </trkpt>
      <trkpt lat="37.821900" lon="-119.914800">
        <ele>1155.885</ele>
        <time>2018-12-29T06:14:00Z</time>
      </trkpt>
      <trkpt lat="37.821870" lon="-119.914760">
        <ele>1156.664</ele>
        <time>2018-12-29T06:14:20Z</time>
      </trkpt>
      <trkpt lat="37.821820" lon="-119.914700">
        <ele>1158.006</ele>
        <time>2018-12-29T06:14:40Z</time>
      </trkpt>
      <trkpt lat="37.821770" lon="-119.914630">
        <ele>1159.216</ele>
        <time>2018-12-29T06:15:00Z</time>
      </trkpt>
      <trkpt lat="37.821670" lon="-119.914540">
        <ele>1159.708</ele>
        <time>2018-12-29T06:15:20Z</time>
      </trkpt>
      <trkpt lat="37.821480" lon="-119.914420">
        <ele>1160.559</ele>
        <time>2018-12-29T06:15:40Z</time>
      </trkpt>
      <trkpt lat="37.821380" lon="-119.914370">
        <ele>1160.767</ele>
        <time>2018-12-29T06:16:00Z</time>
      </trkpt>
      <trkpt lat="37.821290" lon="-119.914330">
        <ele>1161.062</ele>
        <time>2018-12-29T06:16:20Z</time>
      </trkpt>
      <trkpt lat="37.821230" lon="-119.914310">
        <ele>1161.291</ele>
        <time>2018-12-29T06:16:40Z</time>
      </trkpt>
      <trkpt lat="37.821050" lon="-119.914280">
        <ele>1161.675</ele>
        <time>2018-12-29T06:17:00Z</time>
      </trkpt>
      <trkpt lat="37.820770" lon="-119.914260">
        <ele>1162.781</ele>
        <time>2018-12-29T06:17:20Z</time>
      </trkpt>
      <trkpt lat="37.820550" lon="-119.914230">
        <ele>1163.358</ele>
        <time>2018-12-29T06:17:40Z</time>
      </trkpt>
      <trkpt lat="37.820370" lon="-119.914200">
        <ele>1164.072</ele>
        <time>2018-12-29T06:18:00Z</time>
      </trkpt>
      <trkpt lat="37.820070" lon="-119.914120">
        <ele>1165.739</ele>
        <time>2018-12-29T06:18:20Z</time>
      </trkpt>
      <trkpt lat="37.819850" lon="-119.914030">
        <ele>1167.601</ele>
        <time>2018-12-29T06:18:40Z</time>
      </trkpt>
      <trkpt lat="37.819650" lon="-119.913930">
        <ele>1170.321</ele>
        <time>2018-12-29T06:19:00Z</time>
      </trkpt>
      <trkpt lat="37.819540" lon="-119.913850">
        <ele>1173.208</ele>
        <time>2018-12-29T06:19:20Z</time>
      </trkpt>
      <trkpt lat="37.819430" lon="-119.913760">
        <ele>1176.476</ele>
        <time>2018-12-29T06:19:40Z</time>
      </trkpt>
      <trkpt lat="37.819290" lon="-119.913640">
        <ele>1178.774</ele>
        <time>2018-12-29T06:20:00Z</time>
      </trkpt>
      <trkpt lat="37.819180" lon="-119.913550">
        <ele>1179.889</ele>
        <time>2018-12-29T06:20:20Z</time>
      </trkpt>
      <trkpt lat="37.819100" lon="-119.913460">
        <ele>1180.138</ele>
        <time>2018-12-29T06:20:40Z</time>
      </trkpt>
      <trkpt lat="37.818990" lon="-119.913340">
        <ele>1180.812</ele>
        <time>2018-12-29T06:21:00Z</time>
      </trkpt>
      <trkpt lat="37.818900" lon="-119.913230">
        <ele>1181.218</ele>
        <time>2018-12-29T06:21:20Z</time>
      </trkpt>
      <trkpt lat="37.818780" lon="-119.913050">
        <ele>1181.425</ele>
        <time>2018-12-29T06:21:40Z</time>
      </trkpt>
      <trkpt lat="37.818720" lon="-119.912940">
        <ele>1181.249</ele>
        <time>2018-12-29T06:22:00Z</time>
      </trkpt>
      <trkpt lat="37.818630" lon="-119.912770">
        <ele>1181.396</ele>
        <time>2018-12-29T06:22:20Z</time>
      </trkpt>
      <trkpt lat="37.818530" lon="-119.912550">
        <ele>1181.431</ele>
        <time>2018-12-29T06:22:40Z</time>
      </trkpt>
      <trkpt lat="37.818410" lon="-119.912310">
        <ele>1183.924</ele>
        <time>2018-12-29T06:23:00Z</time>
      </trkpt>
      <trkpt lat="37.818150" lon="-119.911770">
        <ele>1190.308</ele>
        <time>2018-12-29T06:23:20Z</time>
      </trkpt>
      <trkpt lat="37.818100" lon="-119.911670">
        <ele>1191.052</ele>
        <time>2018-12-29T06:23:40Z</time>
      </trkpt>
      <trkpt lat="37.818000" lon="-119.911480">
        <ele>1192.230</ele>
        <time>2018-12-29T06:24:00Z</time>
      </trkpt>
      <trkpt lat="37.817920" lon="-119.911360">
        <ele>1193.195</ele>
        <time>2018-12-29T06:24:20Z</time>
      </trkpt>
      <trkpt lat="37.817790" lon="-119.911170">
        <ele>1195.114</ele>
        <time>2018-12-29T06:24:40Z</time>
      </trkpt>
      <trkpt lat="37.817720" lon="-119.911080">
        <ele>1196.368</ele>
        <time>2018-12-29T06:25:00Z</time>
      </trkpt>
      <trkpt lat="37.817610" lon="-119.910950">
        <ele>1198.174</ele>
        <time>2018-12-29T06:25:20Z</time>
      </trkpt>
      <trkpt lat="37.817500" lon="-119.910860">
        <ele>1199.441</ele>
        <time>2018-12-29T06:25:40Z</time>
      </trkpt>
      <trkpt lat="37.817400" lon="-119.910780">
        <ele>1200.365</ele>
        <time>2018-12-29T06:26:00Z</time>
      </trkpt>
      <trkpt lat="37.817330" lon="-119.910720">
        <ele>1200.733</ele>
        <time>2018-12-29T06:26:20Z</time>
      </trkpt>
      <trkpt lat="37.817240" lon="-119.910660">
        <ele>1201.223</ele>
        <time>2018-12-29T06:26:40Z</time>
      </trkpt>
      <trkpt lat="37.817080" lon="-119.910550">
        <ele>1202.015</ele>
        <time>2018-12-29T06:27:00Z</time>
      </trkpt>
      <trkpt lat="37.817000" lon="-119.910510">
        <ele>1202.908</ele>
        <time>2018-12-29T06:27:20Z</time>
      </trkpt>
      <trkpt lat="37.816920" lon="-119.910470">
        <ele>1203.886</ele>
        <time>2018-12-29T06:27:40Z</time>
      </trkpt>
      <trkpt lat="37.816750" lon="-119.910400">
        <ele>1206.464</ele>
        <time>2018-12-29T06:28:00Z</time>
      </trkpt>
      <trkpt lat="37.816600" lon="-119.910370">
        <ele>1208.619</ele>
        <time>2018-12-29T06:28:20Z</time>
      </trkpt>
      <trkpt lat="37.816280" lon="-119.910280">
        <ele>1211.838</ele>
        <time>2018-12-29T06:28:40Z</time>
      </trkpt>
      <trkpt lat="37.816100" lon="-119.910240">
        <ele>1213.212</ele>
        <time>2018-12-29T06:29:00Z</time>
      </trkpt>
      <trkpt lat="37.815970" lon="-119.910200">
        <ele>1214.098</ele>
        <time>2018-12-29T06:29:20Z</time>
      </trkpt>
      <trkpt lat="37.815910" lon="-119.910190">
        <ele>1214.385</ele>
        <time>2018-12-29T06:29:40Z</time>
      </trkpt>
      <trkpt lat="37.815770" lon="-119.910130">
        <ele>1214.839</ele>
        <time>2018-12-29T06:30:00Z</time>
      </trkpt>
      <trkpt lat="37.815680" lon="-119.910090">
        <ele>1215.342</ele>
        <time>2018-12-29T06:30:20Z</time>
      </trkpt>
      <trkpt lat="37.815590" lon="-119.910030">
        <ele>1215.722</ele>
        <time>2018-12-29T06:30:40Z</time>
      </trkpt>
      <trkpt lat="37.815520" lon="-119.909980">
        <ele>1216.014</ele>
        <time>2018-12-29T06:31:00Z</time>
      </trkpt>
      <trkpt lat="37.815400" lon="-119.909890">
        <ele>1216.508</ele>
        <time>2018-12-29T06:31:20Z</time>
      </trkpt>
      <trkpt lat="37.815320" lon="-119.909820">
        <ele>1217.047</ele>
        <time>2018-12-29T06:31:40Z</time>
      </trkpt>
      <trkpt lat="37.815220" lon="-119.909710">
        <ele>1217.765</ele>
        <time>2018-12-29T06:32:00Z</time>
      </trkpt>
      <trkpt lat="37.815140" lon="-119.909610">
        <ele>1218.090</ele>
        <time>2018-12-29T06:32:20Z</time>
      </trkpt>
      <trkpt lat="37.815080" lon="-119.909530">
        <ele>1218.799</ele>
        <time>2018-12-29T06:32:40Z</time>
      </trkpt>
      <trkpt lat="37.815000" lon="-119.909410">
        <ele>1219.523</ele>
        <time>2018-12-29T06:33:00Z</time>
      </trkpt>
      <trkpt lat="37.814920" lon="-119.909280">
        <ele>1220.169</ele>
        <time>2018-12-29T06:33:20Z</time>
      </trkpt>
      <trkpt lat="37.814890" lon="-119.909230">
        <ele>1220.736</ele>
        <time>2018-12-29T06:33:40Z</time>
      </trkpt>
      <trkpt lat="37.814860" lon="-119.909160">
        <ele>1221.540</ele>
        <time>2018-12-29T06:34:00Z</time>
      </trkpt>
      <trkpt lat="37.814810" lon="-119.909040">
        <ele>1224.242</ele>
        <time>2018-12-29T06:34:20Z</time>
      </trkpt>
      <trkpt lat="37.814760" lon="-119.908900">
        <ele>1226.322</ele>
        <time>2018-12-29T06:34:40Z</time>
      </trkpt>
      <trkpt lat="37.814710" lon="-119.908750">
        <ele>1227.814</ele>
        <time>2018-12-29T06:35:00Z</time>
      </trkpt>
      <trkpt lat="37.814690" lon="-119.908640">
        <ele>1228.208</ele>
        <time>2018-12-29T06:35:20Z</time>
      </trkpt>
      <trkpt lat="37.814660" lon="-119.908500">
        <ele>1228.627</ele>
        <time>2018-12-29T06:35:40Z</time>
      </trkpt>
      <trkpt lat="37.814650" lon="-119.908410">
        <ele>1229.035</ele>
        <time>2018-12-29T06:36:00Z</time>
      </trkpt>
      <trkpt lat="37.814630" lon="-119.908280">
        <ele>1229.810</ele>
        <time>2018-12-29T06:36:20Z</time>
      </trkpt>
      <trkpt lat="37.814620" lon="-119.908190">
        <ele>1230.269</ele>
        <time>2018-12-29T06:36:40Z</time>
      </trkpt>
      <trkpt lat="37.814620" lon="-119.908100">
        <ele>1230.513</ele>
        <time>2018-12-29T06:37:00Z</time>
      </trkpt>
      <trkpt lat="37.814600" lon="-119.907850">
        <ele>1231.229</ele>
        <time>2018-12-29T06:37:20Z</time>
      </trkpt>
      <trkpt lat="37.814590" lon="-119.907580">
        <ele>1231.726</ele>
        <time>2018-12-29T06:37:40Z</time>
      </trkpt>
      <trkpt lat="37.814570" lon="-119.907360">
        <ele>1232.270</ele>
        <time>2018-12-29T06:38:00Z</time>
      </trkpt>
      <trkpt lat="37.814550" lon="-119.907200">
        <ele>1234.598</ele>
        <time>2018-12-29T06:38:20Z</time>
      </trkpt>
      <trkpt lat="37.814530" lon="-119.907130">
        <ele>1235.615</ele>
        <time>2018-12-29T06:38:40Z</time>
      </trkpt>
      <trkpt lat="37.814520" lon="-119.907030">
        <ele>1236.326</ele>
        <time>2018-12-29T06:39:00Z</time>
      </trkpt>
      <trkpt lat="37.814480" lon="-119.906890">
        <ele>1237.108</ele>
        <time>2018-12-29T06:39:20Z</time>
      </trkpt>
      <trkpt lat="37.814430" lon="-119.906730">
        <ele>1237.882</ele>
        <time>2018-12-29T06:39:40Z</time>
      </trkpt>
      <trkpt lat="37.814390" lon="-119.906570">
        <ele>1237.970</ele>
        <time>2018-12-29T06:40:00Z</time>
      </trkpt>
      <trkpt lat="37.814330" lon="-119.906410">
        <ele>1238.115</ele>
        <time>2018-12-29T06:40:20Z</time>
      </trkpt>
      <trkpt lat="37.814290" lon="-119.906320">
        <ele>1238.264</ele>
        <time>2018-12-29T06:40:40Z</time>
      </trkpt>
      <trkpt lat="37.814250" lon="-119.906220">
        <ele>1238.378</ele>
        <time>2018-12-29T06:41:00Z</time>
      </trkpt>
      <trkpt lat="37.814220" lon="-119.906170">
        <ele>1238.574</ele>
        <time>2018-12-29T06:41:20Z</time>
      </trkpt>
      <trkpt lat="37.814150" lon="-119.906050">
        <ele>1238.931</ele>
        <time>2018-12-29T06:41:40Z</time>
      </trkpt>
      <trkpt lat="37.814000" lon="-119.905810">
        <ele>1239.275</ele>
        <time>2018-12-29T06:42:00Z</time>
      </trkpt>
      <trkpt lat="37.813920" lon="-119.905670">
        <ele>1239.245</ele>
        <time>2018-12-29T06:42:20Z</time>
      </trkpt>
      <trkpt lat="37.813790" lon="-119.905500">
        <ele>1239.247</ele>
        <time>2018-12-29T06:42:40Z</time>
      </trkpt>
      <trkpt lat="37.813640" lon="-119.905360">
        <ele>1240.711</ele>
        <time>2018-12-29T06:43:00Z</time>
      </trkpt>
      <trkpt lat="37.813450" lon="-119.905200">
        <ele>1245.708</ele>
        <time>2018-12-29T06:43:20Z</time>
      </trkpt>
      <trkpt lat="37.813320" lon="-119.905100">
        <ele>1246.777</ele>
        <time>2018-12-29T06:43:40Z</time>
      </trkpt>
      <trkpt lat="37.813200" lon="-119.905020">
        <ele>1247.125</ele>
        <time>2018-12-29T06:44:00Z</time>
      </trkpt>
      <trkpt lat="37.813050" lon="-119.904940">
        <ele>1248.060</ele>
        <time>2018-12-29T06:44:20Z</time>
      </trkpt>
      <trkpt lat="37.812770" lon="-119.904790">
        <ele>1248.759</ele>
        <time>2018-12-29T06:44:40Z</time>
      </trkpt>
      <trkpt lat="37.812440" lon="-119.904660">
        <ele>1249.213</ele>
        <time>2018-12-29T06:45:00Z</time>
      </trkpt>
      <trkpt lat="37.812230" lon="-119.904520">
        <ele>1249.669</ele>
        <time>2018-12-29T06:45:20Z</time>
      </trkpt>
      <trkpt lat="37.812080" lon="-119.904410">
        <ele>1249.986</ele>
        <time>2018-12-29T06:45:40Z</time>
      </trkpt>
      <trkpt lat="37.811790" lon="-119.904110">
        <ele>1252.580</ele>
        <time>2018-12-29T06:46:00Z</time>
      </trkpt>
      <trkpt lat="37.811690" lon="-119.903980">
        <ele>1254.564</ele>
        <time>2018-12-29T06:46:20Z</time>
      </trkpt>
      <trkpt lat="37.811610" lon="-119.903890">
        <ele>1255.706</ele>
        <time>2018-12-29T06:46:40Z</time>
      </trkpt>
      <trkpt lat="37.811510" lon="-119.903750">
        <ele>1256.516</ele>
        <time>2018-12-29T06:47:00Z</time>
      </trkpt>
      <trkpt lat="37.811450" lon="-119.903650">
        <ele>1260.308</ele>
        <time>2018-12-29T06:47:20Z</time>
      </trkpt>
      <trkpt lat="37.811370" lon="-119.903510">
        <ele>1263.499</ele>
        <time>2018-12-29T06:47:40Z</time>
      </trkpt>
      <trkpt lat="37.811290" lon="-119.903320">
        <ele>1263.837</ele>
        <time>2018-12-29T06:48:00Z</time>
      </trkpt>
      <trkpt lat="37.811230" lon="-119.903170">
        <ele>1263.912</ele>
        <time>2018-12-29T06:48:20Z</time>
      </trkpt>
      <trkpt lat="37.811160" lon="-119.902960">
        <ele>1263.981</ele>
        <time>2018-12-29T06:48:40Z</time>
      </trkpt>
      <trkpt lat="37.811050" lon="-119.902620">
        <ele>1263.515</ele>
        <time>2018-12-29T06:49:00Z</time>
      </trkpt>
      <trkpt lat="37.810920" lon="-119.902170">
        <ele>1266.141</ele>
        <time>2018-12-29T06:49:20Z</time>
      </trkpt>
      <trkpt lat="37.810880" lon="-119.901980">
        <ele>1267.478</ele>
        <time>2018-12-29T06:49:40Z</time>
      </trkpt>
      <trkpt lat="37.810860" lon="-119.901870">
        <ele>1268.022</ele>
        <time>2018-12-29T06:50:00Z</time>
      </trkpt>
      <trkpt lat="37.810850" lon="-119.901750">
        <ele>1268.289</ele>
        <time>2018-12-29T06:50:20Z</time>
      </trkpt>
      <trkpt lat="37.810840" lon="-119.901610">
        <ele>1268.906</ele>
        <time>2018-12-29T06:50:40Z</time>
      </trkpt>
      <trkpt lat="37.810840" lon="-119.901470">
        <ele>1269.126</ele>
        <time>2018-12-29T06:51:00Z</time>
      </trkpt>
      <trkpt lat="37.810840" lon="-119.901410">
        <ele>1269.208</ele>
        <time>2018-12-29T06:51:20Z</time>
      </trkpt>
      <trkpt lat="37.810850" lon="-119.901290">
        <ele>1269.171</ele>
        <time>2018-12-29T06:51:40Z</time>
      </trkpt>
      <trkpt lat="37.810860" lon="-119.901190">
        <ele>1269.059</ele>
        <time>2018-12-29T06:52:00Z</time>
      </trkpt>
      <trkpt lat="37.810880" lon="-119.901070">
        <ele>1268.564</ele>
        <time>2018-12-29T06:52:20Z</time>
      </trkpt>
      <trkpt lat="37.810920" lon="-119.900930">
        <ele>1267.423</ele>
        <time>2018-12-29T06:52:40Z</time>
      </trkpt>
      <trkpt lat="37.811030" lon="-119.900650">
        <ele>1265.157</ele>
        <time>2018-12-29T06:53:00Z</time>
      </trkpt>
      <trkpt lat="37.811070" lon="-119.900570">
        <ele>1265.183</ele>
        <time>2018-12-29T06:53:20Z</time>
      </trkpt>
      <trkpt lat="37.811170" lon="-119.900410">
        <ele>1265.530</ele>
        <time>2018-12-29T06:53:40Z</time>
      </trkpt>
      <trkpt lat="37.811250" lon="-119.900310">
        <ele>1267.344</ele>
        <time>2018-12-29T06:54:00Z</time>
      </trkpt>
      <trkpt lat="37.811340" lon="-119.900200">
        <ele>1271.264</ele>
        <time>2018-12-29T06:54:20Z</time>
      </trkpt>
      <trkpt lat="37.811440" lon="-119.900100">
        <ele>1275.106</ele>
        <time>2018-12-29T06:54:40Z</time>
      </trkpt>
      <trkpt lat="37.811570" lon="-119.899990">
        <ele>1278.316</ele>
        <time>2018-12-29T06:55:00Z</time>
      </trkpt>
      <trkpt lat="37.811660" lon="-119.899930">
        <ele>1278.908</ele>
        <time>2018-12-29T06:55:20Z</time>
      </trkpt>
      <trkpt lat="37.811740" lon="-119.899890">
        <ele>1278.969</ele>
        <time>2018-12-29T06:55:40Z</time>
      </trkpt>
      <trkpt lat="37.811850" lon="-119.899860">
        <ele>1278.697</ele>
        <time>2018-12-29T06:56:00Z</time>
      </trkpt>
      <trkpt lat="37.812030" lon="-119.899830">
        <ele>1278.322</ele>
        <time>2018-12-29T06:56:20Z</time>
      </trkpt>
      <trkpt lat="37.812180" lon="-119.899810">
        <ele>1280.171</ele>
        <time>2018-12-29T06:56:40Z</time>
      </trkpt>
      <trkpt lat="37.812340" lon="-119.899800">
        <ele>1283.325</ele>
        <time>2018-12-29T06:57:00Z</time>
      </trkpt>
      <trkpt lat="37.812570" lon="-119.899800">
        <ele>1285.281</ele>
        <time>2018-12-29T06:57:20Z</time>
      </trkpt>
      <trkpt lat="37.812760" lon="-119.899810">
        <ele>1286.558</ele>
        <time>2018-12-29T06:57:40Z</time>
      </trkpt>
      <trkpt lat="37.812860" lon="-119.899810">
        <ele>1287.422</ele>
        <time>2018-12-29T06:58:00Z</time>
      </trkpt>
      <trkpt lat="37.812910" lon="-119.899810">
        <ele>1287.863</ele>
        <time>2018-12-29T06:58:20Z</time>
      </trkpt>
      <trkpt lat="37.812980" lon="-119.899800">
        <ele>1289.644</ele>
        <time>2018-12-29T06:58:40Z</time>
      </trkpt>
      <trkpt lat="37.813050" lon="-119.899780">
        <ele>1291.618</ele>
        <time>2018-12-29T06:59:00Z</time>
      </trkpt>
      <trkpt lat="37.813130" lon="-119.899760">
        <ele>1293.708</ele>
        <time>2018-12-29T06:59:20Z</time>
      </trkpt>
      <trkpt lat="37.813250" lon="-119.899720">
        <ele>1295.739</ele>
        <time>2018-12-29T06:59:40Z</time>
      </trkpt>
      <trkpt lat="37.813360" lon="-119.899670">
        <ele>1296.637</ele>
        <time>2018-12-29T07:00:00Z</time>
      </trkpt>
      <trkpt lat="37.813470" lon="-119.899600">
        <ele>1297.842</ele>
        <time>2018-12-29T07:00:20Z</time>
      </trkpt>
      <trkpt lat="37.813530" lon="-119.899560">
        <ele>1298.211</ele>
        <time>2018-12-29T07:00:40Z</time>
      </trkpt>
      <trkpt lat="37.813620" lon="-119.899480">
        <ele>1298.875</ele>
        <time>2018-12-29T07:01:00Z</time>
      </trkpt>
      <trkpt lat="37.813700" lon="-119.899380">
        <ele>1299.681</ele>
        <time>2018-12-29T07:01:20Z</time>
      </trkpt>
      <trkpt lat="37.813790" lon="-119.899260">
        <ele>1300.588</ele>
        <time>2018-12-29T07:01:40Z</time>
      </trkpt>
      <trkpt lat="37.813870" lon="-119.899130">
        <ele>1301.482</ele>
        <time>2018-12-29T07:02:00Z</time>
      </trkpt>
      <trkpt lat="37.813950" lon="-119.898980">
        <ele>1302.236</ele>
        <time>2018-12-29T07:02:20Z</time>
      </trkpt>
      <trkpt lat="37.813990" lon="-119.898900">
        <ele>1302.117</ele>
        <time>2018-12-29T07:02:40Z</time>
      </trkpt>
      <trkpt lat="37.814010" lon="-119.898850">
        <ele>1302.018</ele>
        <time>2018-12-29T07:03:00Z</time>
      </trkpt>
      <trkpt lat="37.814030" lon="-119.898790">
        <ele>1301.808</ele>
        <time>2018-12-29T07:03:20Z</time>
      </trkpt>
      <trkpt lat="37.814050" lon="-119.898720">
        <ele>1302.186</ele>
        <time>2018-12-29T07:03:40Z</time>
      </trkpt>
      <trkpt lat="37.814080" lon="-119.898640">
        <ele>1302.254</ele>
        <time>2018-12-29T07:04:00Z</time>
      </trkpt>
      <trkpt lat="37.814100" lon="-119.898510">
        <ele>1301.949</ele>
        <time>2018-12-29T07:04:20Z</time>
      </trkpt>
      <trkpt lat="37.814120" lon="-119.898390">
        <ele>1301.728</ele>
        <time>2018-12-29T07:04:40Z</time>
      </trkpt>
      <trkpt lat="37.814140" lon="-119.898310">
        <ele>1301.512</ele>
        <time>2018-12-29T07:05:00Z</time>
      </trkpt>
      <trkpt lat="37.814150" lon="-119.898220">
        <ele>1301.558</ele>
        <time>2018-12-29T07:05:20Z</time>
      </trkpt>
      <trkpt lat="37.814150" lon="-119.898130">
        <ele>1301.695</ele>
        <time>2018-12-29T07:05:40Z</time>
      </trkpt>
      <trkpt lat="37.814150" lon="-119.898070">
        <ele>1301.659</ele>
        <time>2018-12-29T07:06:00Z</time>
      </trkpt>
      <trkpt lat="37.814150" lon="-119.898010">
        <ele>1301.774</ele>
        <time>2018-12-29T07:06:20Z</time>
      </trkpt>
      <trkpt lat="37.814150" lon="-119.897940">
        <ele>1301.856</ele>
        <time>2018-12-29T07:06:40Z</time>
      </trkpt>
      <trkpt lat="37.814140" lon="-119.897840">
        <ele>1302.021</ele>
        <time>2018-12-29T07:07:00Z</time>
      </trkpt>
      <trkpt lat="37.814120" lon="-119.897730">
        <ele>1302.508</ele>
        <time>2018-12-29T07:07:20Z</time>
      </trkpt>
      <trkpt lat="37.814090" lon="-119.897620">
        <ele>1303.220</ele>
        <time>2018-12-29T07:07:40Z</time>
      </trkpt>
      <trkpt lat="37.814060" lon="-119.897480">
        <ele>1304.038</ele>
        <time>2018-12-29T07:08:00Z</time>
      </trkpt>
      <trkpt lat="37.814030" lon="-119.897380">
        <ele>1304.783</ele>
        <time>2018-12-29T07:08:20Z</time>
      </trkpt>
      <trkpt lat="37.813950" lon="-119.897160">
        <ele>1308.652</ele>
        <time>2018-12-29T07:08:40Z</time>
      </trkpt>
      <trkpt lat="37.813890" lon="-119.897020">
        <ele>1310.196</ele>
        <time>2018-12-29T07:09:00Z</time>
      </trkpt>
      <trkpt lat="37.813700" lon="-119.896550">
        <ele>1312.512</ele>
        <time>2018-12-29T07:09:20Z</time>
      </trkpt>
      <trkpt lat="37.813570" lon="-119.896170">
        <ele>1313.939</ele>
        <time>2018-12-29T07:09:40Z</time>
      </trkpt>
      <trkpt lat="37.813520" lon="-119.896020">
        <ele>1315.643</ele>
        <time>2018-12-29T07:10:00Z</time>
      </trkpt>
      <trkpt lat="37.813420" lon="-119.895600">
        <ele>1320.021</ele>
        <time>2018-12-29T07:10:20Z</time>
      </trkpt>
      <trkpt lat="37.813380" lon="-119.895420">
        <ele>1320.541</ele>
        <time>2018-12-29T07:10:40Z</time>
      </trkpt>
      <trkpt lat="37.813320" lon="-119.895030">
        <ele>1321.705</ele>
        <time>2018-12-29T07:11:00Z</time>
      </trkpt>
      <trkpt lat="37.813280" lon="-119.894680">
        <ele>1323.708</ele>
        <time>2018-12-29T07:11:20Z</time>
      </trkpt>
      <trkpt lat="37.813250" lon="-119.894260">
        <ele>1327.755</ele>
        <time>2018-12-29T07:11:40Z</time>
      </trkpt>
      <trkpt lat="37.813250" lon="-119.893650">
        <ele>1328.713</ele>
        <time>2018-12-29T07:12:00Z</time>
      </trkpt>
      <trkpt lat="37.813250" lon="-119.893420">
        <ele>1328.818</ele>
        <time>2018-12-29T07:12:20Z</time>
      </trkpt>
      <trkpt lat="37.813290" lon="-119.893100">
        <ele>1329.847</ele>
        <time>2018-12-29T07:12:40Z</time>
      </trkpt>
      <trkpt lat="37.813350" lon="-119.892560">
        <ele>1330.651</ele>
        <time>2018-12-29T07:13:00Z</time>
      </trkpt>
      <trkpt lat="37.813450" lon="-119.891610">
        <ele>1339.277</ele>
        <time>2018-12-29T07:13:20Z</time>
      </trkpt>
      <trkpt lat="37.813480" lon="-119.891220">
        <ele>1337.964</ele>
        <time>2018-12-29T07:13:40Z</time>
      </trkpt>
      <trkpt lat="37.813500" lon="-119.890860">
        <ele>1335.528</ele>
        <time>2018-12-29T07:14:00Z</time>
      </trkpt>
      <trkpt lat="37.813500" lon="-119.890700">
        <ele>1334.537</ele>
        <time>2018-12-29T07:14:20Z</time>
      </trkpt>
      <trkpt lat="37.813500" lon="-119.890420">
        <ele>1332.549</ele>
        <time>2018-12-29T07:14:40Z</time>
      </trkpt>
      <trkpt lat="37.813500" lon="-119.889460">
        <ele>1325.613</ele>
        <time>2018-12-29T07:15:00Z</time>
      </trkpt>
      <trkpt lat="37.813510" lon="-119.887600">
        <ele>1341.408</ele>
        <time>2018-12-29T07:15:20Z</time>
      </trkpt>
      <trkpt lat="37.813510" lon="-119.886400">
        <ele>1351.326</ele>
        <time>2018-12-29T07:15:40Z</time>
      </trkpt>
      <trkpt lat="37.813510" lon="-119.885290">
        <ele>1352.844</ele>
        <time>2018-12-29T07:16:00Z</time>
      </trkpt>
      <trkpt lat="37.813510" lon="-119.884410">
        <ele>1355.149</ele>
        <time>2018-12-29T07:16:20Z</time>
      </trkpt>
      <trkpt lat="37.813510" lon="-119.883960">
        <ele>1355.838</ele>
        <time>2018-12-29T07:16:40Z</time>
      </trkpt>
      <trkpt lat="37.813510" lon="-119.882630">
        <ele>1372.112</ele>
        <time>2018-12-29T07:17:00Z</time>
      </trkpt>
      <trkpt lat="37.813510" lon="-119.882100">
        <ele>1376.458</ele>
        <time>2018-12-29T07:17:20Z</time>
      </trkpt>
      <trkpt lat="37.813510" lon="-119.881970">
        <ele>1376.845</ele>
        <time>2018-12-29T07:17:40Z</time>
      </trkpt>
      <trkpt lat="37.813520" lon="-119.881800">
        <ele>1377.329</ele>
        <time>2018-12-29T07:18:00Z</time>
      </trkpt>
      <trkpt lat="37.813530" lon="-119.881660">
        <ele>1377.673</ele>
        <time>2018-12-29T07:18:20Z</time>
      </trkpt>
      <trkpt lat="37.813550" lon="-119.881500">
        <ele>1377.885</ele>
        <time>2018-12-29T07:18:40Z</time>
      </trkpt>
      <trkpt lat="37.813600" lon="-119.881260">
        <ele>1377.913</ele>
        <time>2018-12-29T07:19:00Z</time>
      </trkpt>
      <trkpt lat="37.813650" lon="-119.881060">
        <ele>1377.708</ele>
        <time>2018-12-29T07:19:20Z</time>
      </trkpt>
      <trkpt lat="37.813690" lon="-119.880910">
        <ele>1377.690</ele>
        <time>2018-12-29T07:19:40Z</time>
      </trkpt>
      <trkpt lat="37.813710" lon="-119.880820">
        <ele>1377.738</ele>
        <time>2018-12-29T07:20:00Z</time>
      </trkpt>
      <trkpt lat="37.813820" lon="-119.880530">
        <ele>1378.693</ele>
        <time>2018-12-29T07:20:20Z</time>
      </trkpt>
      <trkpt lat="37.813890" lon="-119.880380">
        <ele>1380.112</ele>
        <time>2018-12-29T07:20:40Z</time>
      </trkpt>
      <trkpt lat="37.813930" lon="-119.880300">
        <ele>1381.286</ele>
        <time>2018-12-29T07:21:00Z</time>
      </trkpt>
      <trkpt lat="37.813990" lon="-119.880200">
        <ele>1382.262</ele>
        <time>2018-12-29T07:21:20Z</time>
      </trkpt>
      <trkpt lat="37.814060" lon="-119.880080">
        <ele>1382.729</ele>
        <time>2018-12-29T07:21:40Z</time>
      </trkpt>
      <trkpt lat="37.814180" lon="-119.879910">
        <ele>1382.723</ele>
        <time>2018-12-29T07:22:00Z</time>
      </trkpt>
      <trkpt lat="37.814410" lon="-119.879620">
        <ele>1385.181</ele>
        <time>2018-12-29T07:22:20Z</time>
      </trkpt>
      <trkpt lat="37.814760" lon="-119.879190">
        <ele>1389.461</ele>
        <time>2018-12-29T07:22:40Z</time>
      </trkpt>
      <trkpt lat="37.815300" lon="-119.878580">
        <ele>1401.017</ele>
        <time>2018-12-29T07:23:00Z</time>
      </trkpt>
      <trkpt lat="37.815490" lon="-119.878350">
        <ele>1402.508</ele>
        <time>2018-12-29T07:23:20Z</time>
      </trkpt>
      <trkpt lat="37.815610" lon="-119.878200">
        <ele>1403.051</ele>
        <time>2018-12-29T07:23:40Z</time>
      </trkpt>
      <trkpt lat="37.815640" lon="-119.878160">
        <ele>1403.219</ele>
        <time>2018-12-29T07:24:00Z</time>
      </trkpt>
      <trkpt lat="37.815670" lon="-119.878110">
        <ele>1403.134</ele>
        <time>2018-12-29T07:24:20Z</time>
      </trkpt>
      <trkpt lat="37.815720" lon="-119.878020">
        <ele>1403.073</ele>
        <time>2018-12-29T07:24:40Z</time>
      </trkpt>
      <trkpt lat="37.815750" lon="-119.877960">
        <ele>1403.487</ele>
        <time>2018-12-29T07:25:00Z</time>
      </trkpt>
      <trkpt lat="37.815800" lon="-119.877880">
        <ele>1404.823</ele>
        <time>2018-12-29T07:25:20Z</time>
      </trkpt>
      <trkpt lat="37.815830" lon="-119.877800">
        <ele>1406.560</ele>
        <time>2018-12-29T07:25:40Z</time>
      </trkpt>
      <trkpt lat="37.815870" lon="-119.877690">
        <ele>1408.484</ele>
        <time>2018-12-29T07:26:00Z</time>
      </trkpt>
      <trkpt lat="37.815900" lon="-119.877610">
        <ele>1409.433</ele>
        <time>2018-12-29T07:26:20Z</time>
      </trkpt>
      <trkpt lat="37.815940" lon="-119.877480">
        <ele>1409.223</ele>
        <time>2018-12-29T07:26:40Z</time>
      </trkpt>
      <trkpt lat="37.815960" lon="-119.877380">
        <ele>1408.415</ele>
        <time>2018-12-29T07:27:00Z</time>
      </trkpt>
      <trkpt lat="37.815980" lon="-119.877280">
        <ele>1407.808</ele>
        <time>2018-12-29T07:27:20Z</time>
      </trkpt>
      <trkpt lat="37.815990" lon="-119.877180">
        <ele>1407.326</ele>
        <time>2018-12-29T07:27:40Z</time>
      </trkpt>
      <trkpt lat="37.816000" lon="-119.877110">
        <ele>1406.984</ele>
        <time>2018-12-29T07:28:00Z</time>
      </trkpt>
      <trkpt lat="37.816010" lon="-119.877030">
        <ele>1406.579</ele>
        <time>2018-12-29T07:28:20Z</time>
      </trkpt>
      <trkpt lat="37.816010" lon="-119.876920">
        <ele>1406.078</ele>
        <time>2018-12-29T07:28:40Z</time>
      </trkpt>
      <trkpt lat="37.816010" lon="-119.876850">
        <ele>1405.672</ele>
        <time>2018-12-29T07:29:00Z</time>
      </trkpt>
      <trkpt lat="37.816010" lon="-119.876790">
        <ele>1405.438</ele>
        <time>2018-12-29T07:29:20Z</time>
      </trkpt>
      <trkpt lat="37.816000" lon="-119.876710">
        <ele>1405.625</ele>
        <time>2018-12-29T07:29:40Z</time>
      </trkpt>
      <trkpt lat="37.815980" lon="-119.876550">
        <ele>1406.019</ele>
        <time>2018-12-29T07:30:00Z</time>
      </trkpt>
      <trkpt lat="37.815960" lon="-119.876400">
        <ele>1406.379</ele>
        <time>2018-12-29T07:30:20Z</time>
      </trkpt>
      <trkpt lat="37.815930" lon="-119.876260">
        <ele>1406.905</ele>
        <time>2018-12-29T07:30:40Z</time>
      </trkpt>
      <trkpt lat="37.815900" lon="-119.876140">
        <ele>1407.725</ele>
        <time>2018-12-29T07:31:00Z</time>
      </trkpt>
      <trkpt lat="37.815850" lon="-119.876030">
        <ele>1409.008</ele>
        <time>2018-12-29T07:31:20Z</time>
      </trkpt>
      <trkpt lat="37.815800" lon="-119.875910">
        <ele>1410.120</ele>
        <time>2018-12-29T07:31:40Z</time>
      </trkpt>
      <trkpt lat="37.815750" lon="-119.875790">
        <ele>1410.968</ele>
        <time>2018-12-29T07:32:00Z</time>
      </trkpt>
      <trkpt lat="37.815660" lon="-119.875660">
        <ele>1412.533</ele>
        <time>2018-12-29T07:32:20Z</time>
      </trkpt>
      <trkpt lat="37.815590" lon="-119.875560">
        <ele>1414.562</ele>
        <time>2018-12-29T07:32:40Z</time>
      </trkpt>
      <trkpt lat="37.815510" lon="-119.875450">
        <ele>1415.976</ele>
        <time>2018-12-29T07:33:00Z</time>
      </trkpt>
      <trkpt lat="37.815440" lon="-119.875370">
        <ele>1416.332</ele>
        <time>2018-12-29T07:33:20Z</time>
      </trkpt>
      <trkpt lat="37.815380" lon="-119.875320">
        <ele>1416.419</ele>
        <time>2018-12-29T07:33:40Z</time>
      </trkpt>
      <trkpt lat="37.815280" lon="-119.875260">
        <ele>1416.493</ele>
        <time>2018-12-29T07:34:00Z</time>
      </trkpt>
      <trkpt lat="37.815100" lon="-119.875140">
        <ele>1416.052</ele>
        <time>2018-12-29T07:34:20Z</time>
      </trkpt>
      <trkpt lat="37.814890" lon="-119.875080">
        <ele>1415.853</ele>
        <time>2018-12-29T07:34:40Z</time>
      </trkpt>
      <trkpt lat="37.814680" lon="-119.875030">
        <ele>1415.808</ele>
        <time>2018-12-29T07:35:00Z</time>
      </trkpt>
      <trkpt lat="37.814180" lon="-119.874980">
        <ele>1416.308</ele>
        <time>2018-12-29T07:35:20Z</time>
      </trkpt>
      <trkpt lat="37.813960" lon="-119.874980">
        <ele>1416.838</ele>
        <time>2018-12-29T07:35:40Z</time>
      </trkpt>
      <trkpt lat="37.813370" lon="-119.874910">
        <ele>1416.796</ele>
        <time>2018-12-29T07:36:00Z</time>
      </trkpt>
      <trkpt lat="37.813030" lon="-119.874890">
        <ele>1416.421</ele>
        <time>2018-12-29T07:36:20Z</time>
      </trkpt>
      <trkpt lat="37.812810" lon="-119.874870">
        <ele>1416.060</ele>
        <time>2018-12-29T07:36:40Z</time>
      </trkpt>
      <trkpt lat="37.812590" lon="-119.874820">
        <ele>1415.154</ele>
        <time>2018-12-29T07:37:00Z</time>
      </trkpt>
      <trkpt lat="37.812370" lon="-119.874760">
        <ele>1414.270</ele>
        <time>2018-12-29T07:37:20Z</time>
      </trkpt>
      <trkpt lat="37.812280" lon="-119.874720">
        <ele>1413.497</ele>
        <time>2018-12-29T07:37:40Z</time>
      </trkpt>
      <trkpt lat="37.812200" lon="-119.874670">
        <ele>1412.411</ele>
        <time>2018-12-29T07:38:00Z</time>
      </trkpt>
      <trkpt lat="37.812130" lon="-119.874640">
        <ele>1411.973</ele>
        <time>2018-12-29T07:38:20Z</time>
      </trkpt>
      <trkpt lat="37.812080" lon="-119.874610">
        <ele>1411.485</ele>
        <time>2018-12-29T07:38:40Z</time>
      </trkpt>
      <trkpt lat="37.812000" lon="-119.874560">
        <ele>1412.513</ele>
        <time>2018-12-29T07:39:00Z</time>
      </trkpt>
      <trkpt lat="37.811930" lon="-119.874510">
        <ele>1413.908</ele>
        <time>2018-12-29T07:39:20Z</time>
      </trkpt>
      <trkpt lat="37.811820" lon="-119.874420">
        <ele>1416.270</ele>
        <time>2018-12-29T07:39:40Z</time>
      </trkpt>
      <trkpt lat="37.811740" lon="-119.874350">
        <ele>1417.638</ele>
        <time>2018-12-29T07:40:00Z</time>
      </trkpt>
      <trkpt lat="37.811670" lon="-119.874280">
        <ele>1418.723</ele>
        <time>2018-12-29T07:40:20Z</time>
      </trkpt>
      <trkpt lat="37.811530" lon="-119.874130">
        <ele>1420.622</ele>
        <time>2018-12-29T07:40:40Z</time>
      </trkpt>
      <trkpt lat="37.811460" lon="-119.874040">
        <ele>1421.626</ele>
        <time>2018-12-29T07:41:00Z</time>
      </trkpt>
      <trkpt lat="37.811330" lon="-119.873870">
        <ele>1424.032</ele>
        <time>2018-12-29T07:41:20Z</time>
      </trkpt>
      <trkpt lat="37.811090" lon="-119.873520">
        <ele>1428.259</ele>
        <time>2018-12-29T07:41:40Z</time>
      </trkpt>
      <trkpt lat="37.810930" lon="-119.873290">
        <ele>1430.043</ele>
        <time>2018-12-29T07:42:00Z</time>
      </trkpt>
      <trkpt lat="37.810610" lon="-119.872810">
        <ele>1434.951</ele>
        <time>2018-12-29T07:42:20Z</time>
      </trkpt>
      <trkpt lat="37.810450" lon="-119.872590">
        <ele>1437.501</ele>
        <time>2018-12-29T07:42:40Z</time>
      </trkpt>
      <trkpt lat="37.810350" lon="-119.872460">
        <ele>1438.911</ele>
        <time>2018-12-29T07:43:00Z</time>
      </trkpt>
      <trkpt lat="37.810280" lon="-119.872380">
        <ele>1439.708</ele>
        <time>2018-12-29T07:43:20Z</time>
      </trkpt>
      <trkpt lat="37.810240" lon="-119.872340">
        <ele>1440.218</ele>
        <time>2018-12-29T07:43:40Z</time>
      </trkpt>
      <trkpt lat="37.810150" lon="-119.872250">
        <ele>1441.286</ele>
        <time>2018-12-29T07:44:00Z</time>
      </trkpt>
      <trkpt lat="37.810090" lon="-119.872200">
        <ele>1441.751</ele>
        <time>2018-12-29T07:44:20Z</time>
      </trkpt>
      <trkpt lat="37.810020" lon="-119.872140">
        <ele>1442.120</ele>
        <time>2018-12-29T07:44:40Z</time>
      </trkpt>
      <trkpt lat="37.809940" lon="-119.872100">
        <ele>1442.584</ele>
        <time>2018-12-29T07:45:00Z</time>
      </trkpt>
      <trkpt lat="37.809840" lon="-119.872040">
        <ele>1442.610</ele>
        <time>2018-12-29T07:45:20Z</time>
      </trkpt>
      <trkpt lat="37.809740" lon="-119.872010">
        <ele>1442.797</ele>
        <time>2018-12-29T07:45:40Z</time>
      </trkpt>
      <trkpt lat="37.809630" lon="-119.871970">
        <ele>1442.731</ele>
        <time>2018-12-29T07:46:00Z</time>
      </trkpt>
      <trkpt lat="37.809550" lon="-119.871950">
        <ele>1442.763</ele>
        <time>2018-12-29T07:46:20Z</time>
      </trkpt>
      <trkpt lat="37.809460" lon="-119.871940">
        <ele>1442.744</ele>
        <time>2018-12-29T07:46:40Z</time>
      </trkpt>
      <trkpt lat="37.809350" lon="-119.871930">
        <ele>1442.818</ele>
        <time>2018-12-29T07:47:00Z</time>
      </trkpt>
      <trkpt lat="37.809270" lon="-119.871940">
        <ele>1443.008</ele>
        <time>2018-12-29T07:47:20Z</time>
      </trkpt>
      <trkpt lat="37.809120" lon="-119.871950">
        <ele>1443.049</ele>
        <time>2018-12-29T07:47:40Z</time>
      </trkpt>
      <trkpt lat="37.809000" lon="-119.871970">
        <ele>1443.117</ele>
        <time>2018-12-29T07:48:00Z</time>
      </trkpt>
      <trkpt lat="37.808880" lon="-119.872000">
        <ele>1443.062</ele>
        <time>2018-12-29T07:48:20Z</time>
      </trkpt>
      <trkpt lat="37.808810" lon="-119.872030">
        <ele>1443.171</ele>
        <time>2018-12-29T07:48:40Z</time>
      </trkpt>
      <trkpt lat="37.808730" lon="-119.872070">
        <ele>1443.145</ele>
        <time>2018-12-29T07:49:00Z</time>
      </trkpt>
      <trkpt lat="37.808640" lon="-119.872120">
        <ele>1443.341</ele>
        <time>2018-12-29T07:49:20Z</time>
      </trkpt>
      <trkpt lat="37.808550" lon="-119.872190">
        <ele>1443.988</ele>
        <time>2018-12-29T07:49:40Z</time>
      </trkpt>
      <trkpt lat="37.808460" lon="-119.872260">
        <ele>1444.452</ele>
        <time>2018-12-29T07:50:00Z</time>
      </trkpt>
      <trkpt lat="37.808380" lon="-119.872330">
        <ele>1444.984</ele>
        <time>2018-12-29T07:50:20Z</time>
      </trkpt>
      <trkpt lat="37.808200" lon="-119.872510">
        <ele>1445.707</ele>
        <time>2018-12-29T07:50:40Z</time>
      </trkpt>
      <trkpt lat="37.808150" lon="-119.872570">
        <ele>1446.117</ele>
        <time>2018-12-29T07:51:00Z</time>
      </trkpt>
      <trkpt lat="37.807920" lon="-119.872830">
        <ele>1446.508</ele>
        <time>2018-12-29T07:51:20Z</time>
      </trkpt>
      <trkpt lat="37.807800" lon="-119.872960">
        <ele>1446.621</ele>
        <time>2018-12-29T07:51:40Z</time>
      </trkpt>
      <trkpt lat="37.807670" lon="-119.873070">
        <ele>1446.239</ele>
        <time>2018-12-29T07:52:00Z</time>
      </trkpt>
      <trkpt lat="37.807530" lon="-119.873170">
        <ele>1446.694</ele>
        <time>2018-12-29T07:52:20Z</time>
      </trkpt>
      <trkpt lat="37.807460" lon="-119.873210">
        <ele>1446.993</ele>
        <time>2018-12-29T07:52:40Z</time>
      </trkpt>
      <trkpt lat="37.807400" lon="-119.873230">
        <ele>1447.157</ele>
        <time>2018-12-29T07:53:00Z</time>
      </trkpt>
      <trkpt lat="37.807340" lon="-119.873250">
        <ele>1447.593</ele>
        <time>2018-12-29T07:53:20Z</time>
      </trkpt>
      <trkpt lat="37.807230" lon="-119.873280">
        <ele>1449.070</ele>
        <time>2018-12-29T07:53:40Z</time>
      </trkpt>
      <trkpt lat="37.807180" lon="-119.873290">
        <ele>1449.624</ele>
        <time>2018-12-29T07:54:00Z</time>
      </trkpt>
      <trkpt lat="37.807140" lon="-119.873290">
        <ele>1450.038</ele>
        <time>2018-12-29T07:54:20Z</time>
      </trkpt>
      <trkpt lat="37.807060" lon="-119.873300">
        <ele>1451.070</ele>
        <time>2018-12-29T07:54:40Z</time>
      </trkpt>
      <trkpt lat="37.806940" lon="-119.873300">
        <ele>1452.517</ele>
        <time>2018-12-29T07:55:00Z</time>
      </trkpt>
      <trkpt lat="37.806850" lon="-119.873290">
        <ele>1453.608</ele>
        <time>2018-12-29T07:55:20Z</time>
      </trkpt>
      <trkpt lat="37.806780" lon="-119.873280">
        <ele>1454.366</ele>
        <time>2018-12-29T07:55:40Z</time>
      </trkpt>
      <trkpt lat="37.806710" lon="-119.873260">
        <ele>1454.934</ele>
        <time>2018-12-29T07:56:00Z</time>
      </trkpt>
      <trkpt lat="37.806590" lon="-119.873220">
        <ele>1455.939</ele>
        <time>2018-12-29T07:56:20Z</time>
      </trkpt>
      <trkpt lat="37.806510" lon="-119.873190">
        <ele>1456.518</ele>
        <time>2018-12-29T07:56:40Z</time>
      </trkpt>
      <trkpt lat="37.806440" lon="-119.873160">
        <ele>1456.942</ele>
        <time>2018-12-29T07:57:00Z</time>
      </trkpt>
      <trkpt lat="37.806310" lon="-119.873090">
        <ele>1457.778</ele>
        <time>2018-12-29T07:57:20Z</time>
      </trkpt>
      <trkpt lat="37.806020" lon="-119.872940">
        <ele>1459.195</ele>
        <time>2018-12-29T07:57:40Z</time>
      </trkpt>
      <trkpt lat="37.805880" lon="-119.872860">
        <ele>1459.579</ele>
        <time>2018-12-29T07:58:00Z</time>
      </trkpt>
      <trkpt lat="37.805760" lon="-119.872810">
        <ele>1460.059</ele>
        <time>2018-12-29T07:58:20Z</time>
      </trkpt>
      <trkpt lat="37.805650" lon="-119.872770">
        <ele>1460.503</ele>
        <time>2018-12-29T07:58:40Z</time>
      </trkpt>
      <trkpt lat="37.805490" lon="-119.872730">
        <ele>1461.423</ele>
        <time>2018-12-29T07:59:00Z</time>
      </trkpt>
      <trkpt lat="37.805340" lon="-119.872700">
        <ele>1462.808</ele>
        <time>2018-12-29T07:59:20Z</time>
      </trkpt>
      <trkpt lat="37.805210" lon="-119.872670">
        <ele>1464.598</ele>
        <time>2018-12-29T07:59:40Z</time>
      </trkpt>
      <trkpt lat="37.805050" lon="-119.872660">
        <ele>1465.996</ele>
        <time>2018-12-29T08:00:00Z</time>
      </trkpt>
      <trkpt lat="37.804940" lon="-119.872670">
        <ele>1466.311</ele>
        <time>2018-12-29T08:00:20Z</time>
      </trkpt>
      <trkpt lat="37.804890" lon="-119.872670">
        <ele>1466.510</ele>
        <time>2018-12-29T08:00:40Z</time>
      </trkpt>
      <trkpt lat="37.804830" lon="-119.872690">
        <ele>1466.984</ele>
        <time>2018-12-29T08:01:00Z</time>
      </trkpt>
      <trkpt lat="37.804770" lon="-119.872710">
        <ele>1467.240</ele>
        <time>2018-12-29T08:01:20Z</time>
      </trkpt>
      <trkpt lat="37.804630" lon="-119.872760">
        <ele>1468.027</ele>
        <time>2018-12-29T08:01:40Z</time>
      </trkpt>
      <trkpt lat="37.804530" lon="-119.872810">
        <ele>1468.751</ele>
        <time>2018-12-29T08:02:00Z</time>
      </trkpt>
      <trkpt lat="37.804380" lon="-119.872890">
        <ele>1469.888</ele>
        <time>2018-12-29T08:02:20Z</time>
      </trkpt>
      <trkpt lat="37.804320" lon="-119.872920">
        <ele>1470.224</ele>
        <time>2018-12-29T08:02:40Z</time>
      </trkpt>
      <trkpt lat="37.804200" lon="-119.873000">
        <ele>1471.626</ele>
        <time>2018-12-29T08:03:00Z</time>
      </trkpt>
      <trkpt lat="37.804040" lon="-119.873110">
        <ele>1473.208</ele>
        <time>2018-12-29T08:03:20Z</time>
      </trkpt>
      <trkpt lat="37.803610" lon="-119.873420">
        <ele>1476.421</ele>
        <time>2018-12-29T08:03:40Z</time>
      </trkpt>
      <trkpt lat="37.803390" lon="-119.873540">
        <ele>1478.989</ele>
        <time>2018-12-29T08:04:00Z</time>
      </trkpt>
      <trkpt lat="37.803200" lon="-119.873630">
        <ele>1482.054</ele>
        <time>2018-12-29T08:04:20Z</time>
      </trkpt>
      <trkpt lat="37.802970" lon="-119.873720">
        <ele>1484.633</ele>
        <time>2018-12-29T08:04:40Z</time>
      </trkpt>
      <trkpt lat="37.802540" lon="-119.873860">
        <ele>1485.347</ele>
        <time>2018-12-29T08:05:00Z</time>
      </trkpt>
      <trkpt lat="37.802450" lon="-119.873890">
        <ele>1485.393</ele>
        <time>2018-12-29T08:05:20Z</time>
      </trkpt>
      <trkpt lat="37.801940" lon="-119.874060">
        <ele>1485.460</ele>
        <time>2018-12-29T08:05:40Z</time>
      </trkpt>
      <trkpt lat="37.801710" lon="-119.874150">
        <ele>1485.034</ele>
        <time>2018-12-29T08:06:00Z</time>
      </trkpt>
      <trkpt lat="37.801500" lon="-119.874230">
        <ele>1484.785</ele>
        <time>2018-12-29T08:06:20Z</time>
      </trkpt>
      <trkpt lat="37.801380" lon="-119.874290">
        <ele>1483.789</ele>
        <time>2018-12-29T08:06:40Z</time>
      </trkpt>
      <trkpt lat="37.800940" lon="-119.874500">
        <ele>1481.717</ele>
        <time>2018-12-29T08:07:00Z</time>
      </trkpt>
      <trkpt lat="37.800530" lon="-119.874730">
        <ele>1482.608</ele>
        <time>2018-12-29T08:07:20Z</time>
      </trkpt>
      <trkpt lat="37.800390" lon="-119.874810">
        <ele>1483.581</ele>
        <time>2018-12-29T08:07:40Z</time>
      </trkpt>
      <trkpt lat="37.800280" lon="-119.874870">
        <ele>1484.359</ele>
        <time>2018-12-29T08:08:00Z</time>
      </trkpt>
      <trkpt lat="37.799880" lon="-119.875090">
        <ele>1486.754</ele>
        <time>2018-12-29T08:08:20Z</time>
      </trkpt>
      <trkpt lat="37.799760" lon="-119.875140">
        <ele>1488.233</ele>
        <time>2018-12-29T08:08:40Z</time>
      </trkpt>
      <trkpt lat="37.799750" lon="-119.875140">
        <ele>1488.457</ele>
        <time>2018-12-29T08:09:00Z</time>
      </trkpt>
      <trkpt lat="37.799470" lon="-119.875240">
        <ele>1492.123</ele>
        <time>2018-12-29T08:09:20Z</time>
      </trkpt>
      <trkpt lat="37.799090" lon="-119.875340">
        <ele>1497.050</ele>
        <time>2018-12-29T08:09:40Z</time>
      </trkpt>
      <trkpt lat="37.798870" lon="-119.875360">
        <ele>1497.924</ele>
        <time>2018-12-29T08:10:00Z</time>
      </trkpt>
      <trkpt lat="37.798560" lon="-119.875350">
        <ele>1498.184</ele>
        <time>2018-12-29T08:10:20Z</time>
      </trkpt>
      <trkpt lat="37.798320" lon="-119.875310">
        <ele>1499.407</ele>
        <time>2018-12-29T08:10:40Z</time>
      </trkpt>
      <trkpt lat="37.798260" lon="-119.875300">
        <ele>1500.017</ele>
        <time>2018-12-29T08:11:00Z</time>
      </trkpt>
      <trkpt lat="37.798160" lon="-119.875270">
        <ele>1501.008</ele>
        <time>2018-12-29T08:11:20Z</time>
      </trkpt>
      <trkpt lat="37.798070" lon="-119.875240">
        <ele>1502.151</ele>
        <time>2018-12-29T08:11:40Z</time>
      </trkpt>
      <trkpt lat="37.797960" lon="-119.875200">
        <ele>1503.179</ele>
        <time>2018-12-29T08:12:00Z</time>
      </trkpt>
      <trkpt lat="37.797840" lon="-119.875150">
        <ele>1504.094</ele>
        <time>2018-12-29T08:12:20Z</time>
      </trkpt>
      <trkpt lat="37.797760" lon="-119.875120">
        <ele>1504.833</ele>
        <time>2018-12-29T08:12:40Z</time>
      </trkpt>
      <trkpt lat="37.797500" lon="-119.874980">
        <ele>1506.537</ele>
        <time>2018-12-29T08:13:00Z</time>
      </trkpt>
      <trkpt lat="37.796970" lon="-119.874640">
        <ele>1508.173</ele>
        <time>2018-12-29T08:13:20Z</time>
      </trkpt>
      <trkpt lat="37.796830" lon="-119.874540">
        <ele>1507.740</ele>
        <time>2018-12-29T08:13:40Z</time>
      </trkpt>
      <trkpt lat="37.796600" lon="-119.874420">
        <ele>1507.414</ele>
        <time>2018-12-29T08:14:00Z</time>
      </trkpt>
      <trkpt lat="37.796370" lon="-119.874350">
        <ele>1507.341</ele>
        <time>2018-12-29T08:14:20Z</time>
      </trkpt>
      <trkpt lat="37.796160" lon="-119.874310">
        <ele>1507.381</ele>
        <time>2018-12-29T08:14:40Z</time>
      </trkpt>
      <trkpt lat="37.795970" lon="-119.874300">
        <ele>1507.609</ele>
        <time>2018-12-29T08:15:00Z</time>
      </trkpt>
      <trkpt lat="37.795790" lon="-119.874310">
        <ele>1508.308</ele>
        <time>2018-12-29T08:15:20Z</time>
      </trkpt>
      <trkpt lat="37.795460" lon="-119.874370">
        <ele>1513.027</ele>
        <time>2018-12-29T08:15:40Z</time>
      </trkpt>
      <trkpt lat="37.795370" lon="-119.874390">
        <ele>1514.275</ele>
        <time>2018-12-29T08:16:00Z</time>
      </trkpt>
      <trkpt lat="37.795080" lon="-119.874430">
        <ele>1517.560</ele>
        <time>2018-12-29T08:16:20Z</time>
      </trkpt>
      <trkpt lat="37.794820" lon="-119.874450">
        <ele>1521.339</ele>
        <time>2018-12-29T08:16:40Z</time>
      </trkpt>
      <trkpt lat="37.794570" lon="-119.874440">
        <ele>1526.273</ele>
        <time>2018-12-29T08:17:00Z</time>
      </trkpt>
      <trkpt lat="37.794360" lon="-119.874390">
        <ele>1527.769</ele>
        <time>2018-12-29T08:17:20Z</time>
      </trkpt>
      <trkpt lat="37.794210" lon="-119.874350">
        <ele>1528.686</ele>
        <time>2018-12-29T08:17:40Z</time>
      </trkpt>
      <trkpt lat="37.794080" lon="-119.874300">
        <ele>1529.120</ele>
        <time>2018-12-29T08:18:00Z</time>
      </trkpt>
      <trkpt lat="37.793960" lon="-119.874250">
        <ele>1529.736</ele>
        <time>2018-12-29T08:18:20Z</time>
      </trkpt>
      <trkpt lat="37.793850" lon="-119.874190">
        <ele>1530.417</ele>
        <time>2018-12-29T08:18:40Z</time>
      </trkpt>
      <trkpt lat="37.793800" lon="-119.874150">
        <ele>1530.518</ele>
        <time>2018-12-29T08:19:00Z</time>
      </trkpt>
      <trkpt lat="37.793720" lon="-119.874090">
        <ele>1531.008</ele>
        <time>2018-12-29T08:19:20Z</time>
      </trkpt>
      <trkpt lat="37.793470" lon="-119.873850">
        <ele>1532.836</ele>
        <time>2018-12-29T08:19:40Z</time>
      </trkpt>
      <trkpt lat="37.793320" lon="-119.873670">
        <ele>1533.744</ele>
        <time>2018-12-29T08:20:00Z</time>
      </trkpt>
      <trkpt lat="37.792970" lon="-119.873180">
        <ele>1536.039</ele>
        <time>2018-12-29T08:20:20Z</time>
      </trkpt>
      <trkpt lat="37.792820" lon="-119.873000">
        <ele>1537.418</ele>
        <time>2018-12-29T08:20:40Z</time>
      </trkpt>
      <trkpt lat="37.792650" lon="-119.872840">
        <ele>1537.732</ele>
        <time>2018-12-29T08:21:00Z</time>
      </trkpt>
      <trkpt lat="37.792500" lon="-119.872750">
        <ele>1541.138</ele>
        <time>2018-12-29T08:21:20Z</time>
      </trkpt>
      <trkpt lat="37.792350" lon="-119.872670">
        <ele>1542.655</ele>
        <time>2018-12-29T08:21:40Z</time>
      </trkpt>
      <trkpt lat="37.792170" lon="-119.872610">
        <ele>1543.069</ele>
        <time>2018-12-29T08:22:00Z</time>
      </trkpt>
      <trkpt lat="37.792060" lon="-119.872590">
        <ele>1543.561</ele>
        <time>2018-12-29T08:22:20Z</time>
      </trkpt>
      <trkpt lat="37.791870" lon="-119.872590">
        <ele>1544.921</ele>
        <time>2018-12-29T08:22:40Z</time>
      </trkpt>
      <trkpt lat="37.791690" lon="-119.872610">
        <ele>1547.213</ele>
        <time>2018-12-29T08:23:00Z</time>
      </trkpt>
      <trkpt lat="37.791620" lon="-119.872630">
        <ele>1548.608</ele>
        <time>2018-12-29T08:23:20Z</time>
      </trkpt>
      <trkpt lat="37.791330" lon="-119.872770">
        <ele>1552.989</ele>
        <time>2018-12-29T08:23:40Z</time>
      </trkpt>
      <trkpt lat="37.791170" lon="-119.872870">
        <ele>1555.657</ele>
        <time>2018-12-29T08:24:00Z</time>
      </trkpt>
      <trkpt lat="37.791040" lon="-119.872990">
        <ele>1558.292</ele>
        <time>2018-12-29T08:24:20Z</time>
      </trkpt>
      <trkpt lat="37.790980" lon="-119.873060">
        <ele>1559.621</ele>
        <time>2018-12-29T08:24:40Z</time>
      </trkpt>
      <trkpt lat="37.790870" lon="-119.873210">
        <ele>1559.935</ele>
        <time>2018-12-29T08:25:00Z</time>
      </trkpt>
      <trkpt lat="37.790770" lon="-119.873390">
        <ele>1559.581</ele>
        <time>2018-12-29T08:25:20Z</time>
      </trkpt>
      <trkpt lat="37.790680" lon="-119.873600">
        <ele>1559.368</ele>
        <time>2018-12-29T08:25:40Z</time>
      </trkpt>
      <trkpt lat="37.790630" lon="-119.873770">
        <ele>1559.182</ele>
        <time>2018-12-29T08:26:00Z</time>
      </trkpt>
      <trkpt lat="37.790590" lon="-119.874010">
        <ele>1558.829</ele>
        <time>2018-12-29T08:26:20Z</time>
      </trkpt>
      <trkpt lat="37.790580" lon="-119.874160">
        <ele>1559.500</ele>
        <time>2018-12-29T08:26:40Z</time>
      </trkpt>
      <trkpt lat="37.790570" lon="-119.874890">
        <ele>1564.420</ele>
        <time>2018-12-29T08:27:00Z</time>
      </trkpt>
      <trkpt lat="37.790560" lon="-119.875010">
        <ele>1564.608</ele>
        <time>2018-12-29T08:27:20Z</time>
      </trkpt>
      <trkpt lat="37.790510" lon="-119.875320">
        <ele>1565.555</ele>
        <time>2018-12-29T08:27:40Z</time>
      </trkpt>
      <trkpt lat="37.790450" lon="-119.875520">
        <ele>1566.883</ele>
        <time>2018-12-29T08:28:00Z</time>
      </trkpt>
      <trkpt lat="37.790350" lon="-119.875740">
        <ele>1568.648</ele>
        <time>2018-12-29T08:28:20Z</time>
      </trkpt>
      <trkpt lat="37.790260" lon="-119.875910">
        <ele>1569.847</ele>
        <time>2018-12-29T08:28:40Z</time>
      </trkpt>
      <trkpt lat="37.790090" lon="-119.876140">
        <ele>1571.051</ele>
        <time>2018-12-29T08:29:00Z</time>
      </trkpt>
      <trkpt lat="37.789910" lon="-119.876310">
        <ele>1571.577</ele>
        <time>2018-12-29T08:29:20Z</time>
      </trkpt>
      <trkpt lat="37.789780" lon="-119.876420">
        <ele>1572.024</ele>
        <time>2018-12-29T08:29:40Z</time>
      </trkpt>
      <trkpt lat="37.789650" lon="-119.876480">
        <ele>1572.268</ele>
        <time>2018-12-29T08:30:00Z</time>
      </trkpt>
      <trkpt lat="37.789390" lon="-119.876540">
        <ele>1576.693</ele>
        <time>2018-12-29T08:30:20Z</time>
      </trkpt>
      <trkpt lat="37.789240" lon="-119.876560">
        <ele>1579.465</ele>
        <time>2018-12-29T08:30:40Z</time>
      </trkpt>
      <trkpt lat="37.789040" lon="-119.876540">
        <ele>1582.321</ele>
        <time>2018-12-29T08:31:00Z</time>
      </trkpt>
      <trkpt lat="37.788870" lon="-119.876500">
        <ele>1584.308</ele>
        <time>2018-12-29T08:31:20Z</time>
      </trkpt>
      <trkpt lat="37.788720" lon="-119.876440">
        <ele>1586.512</ele>
        <time>2018-12-29T08:31:40Z</time>
      </trkpt>
      <trkpt lat="37.788560" lon="-119.876350">
        <ele>1589.330</ele>
        <time>2018-12-29T08:32:00Z</time>
      </trkpt>
      <trkpt lat="37.788200" lon="-119.876060">
        <ele>1592.785</ele>
        <time>2018-12-29T08:32:20Z</time>
      </trkpt>
      <trkpt lat="37.787350" lon="-119.875310">
        <ele>1591.544</ele>
        <time>2018-12-29T08:32:40Z</time>
      </trkpt>
      <trkpt lat="37.786610" lon="-119.874600">
        <ele>1596.948</ele>
        <time>2018-12-29T08:33:00Z</time>
      </trkpt>
      <trkpt lat="37.785980" lon="-119.873910">
        <ele>1592.364</ele>
        <time>2018-12-29T08:33:20Z</time>
      </trkpt>
      <trkpt lat="37.785670" lon="-119.873550">
        <ele>1599.271</ele>
        <time>2018-12-29T08:33:40Z</time>
      </trkpt>
      <trkpt lat="37.784890" lon="-119.872600">
        <ele>1609.995</ele>
        <time>2018-12-29T08:34:00Z</time>
      </trkpt>
      <trkpt lat="37.784080" lon="-119.871650">
        <ele>1613.574</ele>
        <time>2018-12-29T08:34:20Z</time>
      </trkpt>
      <trkpt lat="37.783880" lon="-119.871390">
        <ele>1614.056</ele>
        <time>2018-12-29T08:34:40Z</time>
      </trkpt>
      <trkpt lat="37.783800" lon="-119.871290">
        <ele>1614.721</ele>
        <time>2018-12-29T08:35:00Z</time>
      </trkpt>
      <trkpt lat="37.783720" lon="-119.871170">
        <ele>1616.208</ele>
        <time>2018-12-29T08:35:20Z</time>
      </trkpt>
      <trkpt lat="37.783650" lon="-119.871050">
        <ele>1617.830</ele>
        <time>2018-12-29T08:35:40Z</time>
      </trkpt>
      <trkpt lat="37.783580" lon="-119.870930">
        <ele>1619.678</ele>
        <time>2018-12-29T08:36:00Z</time>
      </trkpt>
      <trkpt lat="37.783390" lon="-119.870500">
        <ele>1626.433</ele>
        <time>2018-12-29T08:36:20Z</time>
      </trkpt>
      <trkpt lat="37.783290" lon="-119.870260">
        <ele>1627.772</ele>
        <time>2018-12-29T08:36:40Z</time>
      </trkpt>
      <trkpt lat="37.783150" lon="-119.869950">
        <ele>1629.456</ele>
        <time>2018-12-29T08:37:00Z</time>
      </trkpt>
      <trkpt lat="37.783110" lon="-119.869890">
        <ele>1629.842</ele>
        <time>2018-12-29T08:37:20Z</time>
      </trkpt>
      <trkpt lat="37.783040" lon="-119.869770">
        <ele>1630.449</ele>
        <time>2018-12-29T08:37:40Z</time>
      </trkpt>
      <trkpt lat="37.782990" lon="-119.869700">
        <ele>1630.923</ele>
        <time>2018-12-29T08:38:00Z</time>
      </trkpt>
      <trkpt lat="37.782910" lon="-119.869590">
        <ele>1631.525</ele>
        <time>2018-12-29T08:38:20Z</time>
      </trkpt>
      <trkpt lat="37.782820" lon="-119.869500">
        <ele>1633.126</ele>
        <time>2018-12-29T08:38:40Z</time>
      </trkpt>
      <trkpt lat="37.782700" lon="-119.869390">
        <ele>1634.108</ele>
        <time>2018-12-29T08:39:00Z</time>
      </trkpt>
      <trkpt lat="37.782610" lon="-119.869330">
        <ele>1634.008</ele>
        <time>2018-12-29T08:39:20Z</time>
      </trkpt>
      <trkpt lat="37.782530" lon="-119.869280">
        <ele>1633.795</ele>
        <time>2018-12-29T08:39:40Z</time>
      </trkpt>
      <trkpt lat="37.782390" lon="-119.869200">
        <ele>1633.113</ele>
        <time>2018-12-29T08:40:00Z</time>
      </trkpt>
      <trkpt lat="37.782190" lon="-119.869120">
        <ele>1634.268</ele>
        <time>2018-12-29T08:40:20Z</time>
      </trkpt>
      <trkpt lat="37.781860" lon="-119.868980">
        <ele>1638.057</ele>
        <time>2018-12-29T08:40:40Z</time>
      </trkpt>
      <trkpt lat="37.781700" lon="-119.868900">
        <ele>1639.241</ele>
        <time>2018-12-29T08:41:00Z</time>
      </trkpt>
      <trkpt lat="37.781580" lon="-119.868830">
        <ele>1639.687</ele>
        <time>2018-12-29T08:41:20Z</time>
      </trkpt>
      <trkpt lat="37.781460" lon="-119.868750">
        <ele>1640.074</ele>
        <time>2018-12-29T08:41:40Z</time>
      </trkpt>
      <trkpt lat="37.781350" lon="-119.868660">
        <ele>1640.248</ele>
        <time>2018-12-29T08:42:00Z</time>
      </trkpt>
      <trkpt lat="37.781260" lon="-119.868570">
        <ele>1640.221</ele>
        <time>2018-12-29T08:42:20Z</time>
      </trkpt>
      <trkpt lat="37.781170" lon="-119.868480">
        <ele>1640.141</ele>
        <time>2018-12-29T08:42:40Z</time>
      </trkpt>
      <trkpt lat="37.781050" lon="-119.868350">
        <ele>1641.105</ele>
        <time>2018-12-29T08:43:00Z</time>
      </trkpt>
      <trkpt lat="37.781000" lon="-119.868280">
        <ele>1641.508</ele>
        <time>2018-12-29T08:43:20Z</time>
      </trkpt>
      <trkpt lat="37.780930" lon="-119.868180">
        <ele>1642.485</ele>
        <time>2018-12-29T08:43:40Z</time>
      </trkpt>
      <trkpt lat="37.780800" lon="-119.867990">
        <ele>1646.033</ele>
        <time>2018-12-29T08:44:00Z</time>
      </trkpt>
      <trkpt lat="37.780720" lon="-119.867840">
        <ele>1648.368</ele>
        <time>2018-12-29T08:44:20Z</time>
      </trkpt>
      <trkpt lat="37.780650" lon="-119.867710">
        <ele>1650.057</ele>
        <time>2018-12-29T08:44:40Z</time>
      </trkpt>
      <trkpt lat="37.780600" lon="-119.867590">
        <ele>1650.971</ele>
        <time>2018-12-29T08:45:00Z</time>
      </trkpt>
      <trkpt lat="37.780470" lon="-119.867270">
        <ele>1652.937</ele>
        <time>2018-12-29T08:45:20Z</time>
      </trkpt>
      <trkpt lat="37.780300" lon="-119.866800">
        <ele>1654.064</ele>
        <time>2018-12-29T08:45:40Z</time>
      </trkpt>
      <trkpt lat="37.780260" lon="-119.866700">
        <ele>1654.038</ele>
        <time>2018-12-29T08:46:00Z</time>
      </trkpt>
      <trkpt lat="37.780200" lon="-119.866590">
        <ele>1654.481</ele>
        <time>2018-12-29T08:46:20Z</time>
      </trkpt>
      <trkpt lat="37.780120" lon="-119.866440">
        <ele>1655.561</ele>
        <time>2018-12-29T08:46:40Z</time>
      </trkpt>
      <trkpt lat="37.780050" lon="-119.866350">
        <ele>1657.117</ele>
        <time>2018-12-29T08:47:00Z</time>
      </trkpt>
      <trkpt lat="37.779990" lon="-119.866280">
        <ele>1658.508</ele>
        <time>2018-12-29T08:47:20Z</time>
      </trkpt>
      <trkpt lat="37.779920" lon="-119.866210">
        <ele>1659.441</ele>
        <time>2018-12-29T08:47:40Z</time>
      </trkpt>
      <trkpt lat="37.779850" lon="-119.866160">
        <ele>1660.459</ele>
        <time>2018-12-29T08:48:00Z</time>
      </trkpt>
      <trkpt lat="37.779770" lon="-119.866090">
        <ele>1660.414</ele>
        <time>2018-12-29T08:48:20Z</time>
      </trkpt>
      <trkpt lat="37.779690" lon="-119.866050">
        <ele>1661.293</ele>
        <time>2018-12-29T08:48:40Z</time>
      </trkpt>
      <trkpt lat="37.779580" lon="-119.865990">
        <ele>1662.327</ele>
        <time>2018-12-29T08:49:00Z</time>
      </trkpt>
      <trkpt lat="37.779520" lon="-119.865960">
        <ele>1662.543</ele>
        <time>2018-12-29T08:49:20Z</time>
      </trkpt>
      <trkpt lat="37.779460" lon="-119.865930">
        <ele>1662.640</ele>
        <time>2018-12-29T08:49:40Z</time>
      </trkpt>
      <trkpt lat="37.779190" lon="-119.865860">
        <ele>1665.024</ele>
        <time>2018-12-29T08:50:00Z</time>
      </trkpt>
      <trkpt lat="37.778590" lon="-119.865700">
        <ele>1666.751</ele>
        <time>2018-12-29T08:50:20Z</time>
      </trkpt>
      <trkpt lat="37.778290" lon="-119.865640">
        <ele>1667.501</ele>
        <time>2018-12-29T08:50:40Z</time>
      </trkpt>
      <trkpt lat="37.778210" lon="-119.865610">
        <ele>1667.511</ele>
        <time>2018-12-29T08:51:00Z</time>
      </trkpt>
      <trkpt lat="37.778110" lon="-119.865590">
        <ele>1667.808</ele>
        <time>2018-12-29T08:51:20Z</time>
      </trkpt>
      <trkpt lat="37.778020" lon="-119.865550">
        <ele>1667.718</ele>
        <time>2018-12-29T08:51:40Z</time>
      </trkpt>
      <trkpt lat="37.777950" lon="-119.865520">
        <ele>1667.736</ele>
        <time>2018-12-29T08:52:00Z</time>
      </trkpt>
      <trkpt lat="37.777910" lon="-119.865510">
        <ele>1667.961</ele>
        <time>2018-12-29T08:52:20Z</time>
      </trkpt>
      <trkpt lat="37.777800" lon="-119.865450">
        <ele>1668.790</ele>
        <time>2018-12-29T08:52:40Z</time>
      </trkpt>
      <trkpt lat="37.777730" lon="-119.865400">
        <ele>1669.334</ele>
        <time>2018-12-29T08:53:00Z</time>
      </trkpt>
      <trkpt lat="37.777650" lon="-119.865340">
        <ele>1669.850</ele>
        <time>2018-12-29T08:53:20Z</time>
      </trkpt>
      <trkpt lat="37.777560" lon="-119.865250">
        <ele>1669.597</ele>
        <time>2018-12-29T08:53:40Z</time>
      </trkpt>
      <trkpt lat="37.777470" lon="-119.865160">
        <ele>1670.291</ele>
        <time>2018-12-29T08:54:00Z</time>
      </trkpt>
      <trkpt lat="37.777410" lon="-119.865080">
        <ele>1670.293</ele>
        <time>2018-12-29T08:54:20Z</time>
      </trkpt>
      <trkpt lat="37.777350" lon="-119.864990">
        <ele>1670.265</ele>
        <time>2018-12-29T08:54:40Z</time>
      </trkpt>
      <trkpt lat="37.777280" lon="-119.864860">
        <ele>1670.321</ele>
        <time>2018-12-29T08:55:00Z</time>
      </trkpt>
      <trkpt lat="37.777220" lon="-119.864750">
        <ele>1671.208</ele>
        <time>2018-12-29T08:55:20Z</time>
      </trkpt>
      <trkpt lat="37.777170" lon="-119.864640">
        <ele>1672.182</ele>
        <time>2018-12-29T08:55:40Z</time>
      </trkpt>
      <trkpt lat="37.777150" lon="-119.864590">
        <ele>1672.440</ele>
        <time>2018-12-29T08:56:00Z</time>
      </trkpt>
      <trkpt lat="37.777120" lon="-119.864510">
        <ele>1673.145</ele>
        <time>2018-12-29T08:56:20Z</time>
      </trkpt>
      <trkpt lat="37.777050" lon="-119.864240">
        <ele>1674.214</ele>
        <time>2018-12-29T08:56:40Z</time>
      </trkpt>
      <trkpt lat="37.777010" lon="-119.864050">
        <ele>1674.898</ele>
        <time>2018-12-29T08:57:00Z</time>
      </trkpt>
      <trkpt lat="37.776900" lon="-119.863540">
        <ele>1679.144</ele>
        <time>2018-12-29T08:57:20Z</time>
      </trkpt>
      <trkpt lat="37.776790" lon="-119.863020">
        <ele>1685.021</ele>
        <time>2018-12-29T08:57:40Z</time>
      </trkpt>
      <trkpt lat="37.776740" lon="-119.862760">
        <ele>1685.245</ele>
        <time>2018-12-29T08:58:00Z</time>
      </trkpt>
      <trkpt lat="37.776670" lon="-119.862470">
        <ele>1685.344</ele>
        <time>2018-12-29T08:58:20Z</time>
      </trkpt>
      <trkpt lat="37.776620" lon="-119.862280">
        <ele>1685.405</ele>
        <time>2018-12-29T08:58:40Z</time>
      </trkpt>
      <trkpt lat="37.776590" lon="-119.862170">
        <ele>1685.415</ele>
        <time>2018-12-29T08:59:00Z</time>
      </trkpt>
      <trkpt lat="37.776560" lon="-119.862090">
        <ele>1685.708</ele>
        <time>2018-12-29T08:59:20Z</time>
      </trkpt>
      <trkpt lat="37.776520" lon="-119.862000">
        <ele>1686.257</ele>
        <time>2018-12-29T08:59:40Z</time>
      </trkpt>
      <trkpt lat="37.776480" lon="-119.861910">
        <ele>1686.395</ele>
        <time>2018-12-29T09:00:00Z</time>
      </trkpt>
      <trkpt lat="37.776430" lon="-119.861810">
        <ele>1686.590</ele>
        <time>2018-12-29T09:00:20Z</time>
      </trkpt>
      <trkpt lat="37.776370" lon="-119.861730">
        <ele>1686.739</ele>
        <time>2018-12-29T09:00:40Z</time>
      </trkpt>
      <trkpt lat="37.776320" lon="-119.861660">
        <ele>1687.053</ele>
        <time>2018-12-29T09:01:00Z</time>
      </trkpt>
      <trkpt lat="37.776280" lon="-119.861610">
        <ele>1687.369</ele>
        <time>2018-12-29T09:01:20Z</time>
      </trkpt>
      <trkpt lat="37.776220" lon="-119.861560">
        <ele>1688.126</ele>
        <time>2018-12-29T09:01:40Z</time>
      </trkpt>
      <trkpt lat="37.776130" lon="-119.861480">
        <ele>1688.840</ele>
        <time>2018-12-29T09:02:00Z</time>
      </trkpt>
      <trkpt lat="37.776020" lon="-119.861390">
        <ele>1689.795</ele>
        <time>2018-12-29T09:02:20Z</time>
      </trkpt>
      <trkpt lat="37.775950" lon="-119.861340">
        <ele>1690.649</ele>
        <time>2018-12-29T09:02:40Z</time>
      </trkpt>
      <trkpt lat="37.775840" lon="-119.861280">
        <ele>1692.923</ele>
        <time>2018-12-29T09:03:00Z</time>
      </trkpt>
      <trkpt lat="37.775760" lon="-119.861250">
        <ele>1695.008</ele>
        <time>2018-12-29T09:03:20Z</time>
      </trkpt>
      <trkpt lat="37.775620" lon="-119.861210">
        <ele>1695.752</ele>
        <time>2018-12-29T09:03:40Z</time>
      </trkpt>
      <trkpt lat="37.775480" lon="-119.861180">
        <ele>1695.330</ele>
        <time>2018-12-29T09:04:00Z</time>
      </trkpt>
      <trkpt lat="37.775370" lon="-119.861160">
        <ele>1694.765</ele>
        <time>2018-12-29T09:04:20Z</time>
      </trkpt>
      <trkpt lat="37.775250" lon="-119.861160">
        <ele>1694.484</ele>
        <time>2018-12-29T09:04:40Z</time>
      </trkpt>
      <trkpt lat="37.775140" lon="-119.861170">
        <ele>1694.658</ele>
        <time>2018-12-29T09:05:00Z</time>
      </trkpt>
      <trkpt lat="37.775080" lon="-119.861180">
        <ele>1695.114</ele>
        <time>2018-12-29T09:05:20Z</time>
      </trkpt>
      <trkpt lat="37.774890" lon="-119.861240">
        <ele>1697.361</ele>
        <time>2018-12-29T09:05:40Z</time>
      </trkpt>
      <trkpt lat="37.774320" lon="-119.861390">
        <ele>1708.375</ele>
        <time>2018-12-29T09:06:00Z</time>
      </trkpt>
      <trkpt lat="37.773970" lon="-119.861470">
        <ele>1715.279</ele>
        <time>2018-12-29T09:06:20Z</time>
      </trkpt>
      <trkpt lat="37.773770" lon="-119.861500">
        <ele>1714.505</ele>
        <time>2018-12-29T09:06:40Z</time>
      </trkpt>
      <trkpt lat="37.773520" lon="-119.861510">
        <ele>1711.925</ele>
        <time>2018-12-29T09:07:00Z</time>
      </trkpt>
      <trkpt lat="37.773180" lon="-119.861530">
        <ele>1711.108</ele>
        <time>2018-12-29T09:07:20Z</time>
      </trkpt>
      <trkpt lat="37.772560" lon="-119.861520">
        <ele>1714.730</ele>
        <time>2018-12-29T09:07:40Z</time>
      </trkpt>
      <trkpt lat="37.771890" lon="-119.861520">
        <ele>1702.158</ele>
        <time>2018-12-29T09:08:00Z</time>
      </trkpt>
      <trkpt lat="37.770810" lon="-119.861510">
        <ele>1694.473</ele>
        <time>2018-12-29T09:08:20Z</time>
      </trkpt>
      <trkpt lat="37.769970" lon="-119.861500">
        <ele>1692.212</ele>
        <time>2018-12-29T09:08:40Z</time>
      </trkpt>
      <trkpt lat="37.769840" lon="-119.861490">
        <ele>1691.916</ele>
        <time>2018-12-29T09:09:00Z</time>
      </trkpt>
      <trkpt lat="37.769730" lon="-119.861490">
        <ele>1691.612</ele>
        <time>2018-12-29T09:09:20Z</time>
      </trkpt>
      <trkpt lat="37.769600" lon="-119.861470">
        <ele>1691.089</ele>
        <time>2018-12-29T09:09:40Z</time>
      </trkpt>
      <trkpt lat="37.769500" lon="-119.861460">
        <ele>1690.753</ele>
        <time>2018-12-29T09:10:00Z</time>
      </trkpt>
      <trkpt lat="37.769430" lon="-119.861440">
        <ele>1690.479</ele>
        <time>2018-12-29T09:10:20Z</time>
      </trkpt>
      <trkpt lat="37.769370" lon="-119.861420">
        <ele>1690.105</ele>
        <time>2018-12-29T09:10:40Z</time>
      </trkpt>
      <trkpt lat="37.769280" lon="-119.861380">
        <ele>1689.425</ele>
        <time>2018-12-29T09:11:00Z</time>
      </trkpt>
      <trkpt lat="37.769190" lon="-119.861320">
        <ele>1688.308</ele>
        <time>2018-12-29T09:11:20Z</time>
      </trkpt>
      <trkpt lat="37.769080" lon="-119.861250">
        <ele>1687.090</ele>
        <time>2018-12-29T09:11:40Z</time>
      </trkpt>
      <trkpt lat="37.768940" lon="-119.861160">
        <ele>1685.318</ele>
        <time>2018-12-29T09:12:00Z</time>
      </trkpt>
      <trkpt lat="37.768530" lon="-119.860830">
        <ele>1683.393</ele>
        <time>2018-12-29T09:12:20Z</time>
      </trkpt>
      <trkpt lat="37.767790" lon="-119.860250">
        <ele>1676.032</ele>
        <time>2018-12-29T09:12:40Z</time>
      </trkpt>
      <trkpt lat="37.766960" lon="-119.859600">
        <ele>1679.236</ele>
        <time>2018-12-29T09:13:00Z</time>
      </trkpt>
      <trkpt lat="37.766810" lon="-119.859470">
        <ele>1680.342</ele>
        <time>2018-12-29T09:13:20Z</time>
      </trkpt>
      <trkpt lat="37.766720" lon="-119.859370">
        <ele>1680.739</ele>
        <time>2018-12-29T09:13:40Z</time>
      </trkpt>
      <trkpt lat="37.766620" lon="-119.859260">
        <ele>1681.193</ele>
        <time>2018-12-29T09:14:00Z</time>
      </trkpt>
      <trkpt lat="37.766550" lon="-119.859170">
        <ele>1681.432</ele>
        <time>2018-12-29T09:14:20Z</time>
      </trkpt>
      <trkpt lat="37.766470" lon="-119.859070">
        <ele>1681.892</ele>
        <time>2018-12-29T09:14:40Z</time>
      </trkpt>
      <trkpt lat="37.766390" lon="-119.858930">
        <ele>1682.411</ele>
        <time>2018-12-29T09:15:00Z</time>
      </trkpt>
      <trkpt lat="37.766330" lon="-119.858800">
        <ele>1682.808</ele>
        <time>2018-12-29T09:15:20Z</time>
      </trkpt>
      <trkpt lat="37.766270" lon="-119.858670">
        <ele>1683.066</ele>
        <time>2018-12-29T09:15:40Z</time>
      </trkpt>
      <trkpt lat="37.766220" lon="-119.858530">
        <ele>1683.724</ele>
        <time>2018-12-29T09:16:00Z</time>
      </trkpt>
      <trkpt lat="37.766170" lon="-119.858370">
        <ele>1684.079</ele>
        <time>2018-12-29T09:16:20Z</time>
      </trkpt>
      <trkpt lat="37.766120" lon="-119.858150">
        <ele>1683.748</ele>
        <time>2018-12-29T09:16:40Z</time>
      </trkpt>
      <trkpt lat="37.766110" lon="-119.858030">
        <ele>1683.822</ele>
        <time>2018-12-29T09:17:00Z</time>
      </trkpt>
      <trkpt lat="37.766100" lon="-119.857880">
        <ele>1684.268</ele>
        <time>2018-12-29T09:17:20Z</time>
      </trkpt>
      <trkpt lat="37.766100" lon="-119.857730">
        <ele>1685.595</ele>
        <time>2018-12-29T09:17:40Z</time>
      </trkpt>
      <trkpt lat="37.766110" lon="-119.857570">
        <ele>1687.189</ele>
        <time>2018-12-29T09:18:00Z</time>
      </trkpt>
      <trkpt lat="37.766110" lon="-119.857450">
        <ele>1688.584</ele>
        <time>2018-12-29T09:18:20Z</time>
      </trkpt>
      <trkpt lat="37.766140" lon="-119.857230">
        <ele>1690.207</ele>
        <time>2018-12-29T09:18:40Z</time>
      </trkpt>
      <trkpt lat="37.766170" lon="-119.857060">
        <ele>1691.117</ele>
        <time>2018-12-29T09:19:00Z</time>
      </trkpt>
      <trkpt lat="37.766210" lon="-119.856790">
        <ele>1692.208</ele>
        <time>2018-12-29T09:19:20Z</time>
      </trkpt>
      <trkpt lat="37.766250" lon="-119.856590">
        <ele>1693.521</ele>
        <time>2018-12-29T09:19:40Z</time>
      </trkpt>
      <trkpt lat="37.766260" lon="-119.856460">
        <ele>1694.499</ele>
        <time>2018-12-29T09:20:00Z</time>
      </trkpt>
      <trkpt lat="37.766280" lon="-119.856310">
        <ele>1695.114</ele>
        <time>2018-12-29T09:20:20Z</time>
      </trkpt>
      <trkpt lat="37.766280" lon="-119.856220">
        <ele>1695.393</ele>
        <time>2018-12-29T09:20:40Z</time>
      </trkpt>
      <trkpt lat="37.766270" lon="-119.856120">
        <ele>1695.477</ele>
        <time>2018-12-29T09:21:00Z</time>
      </trkpt>
      <trkpt lat="37.766260" lon="-119.856030">
        <ele>1695.593</ele>
        <time>2018-12-29T09:21:20Z</time>
      </trkpt>
      <trkpt lat="37.766240" lon="-119.855860">
        <ele>1697.840</ele>
        <time>2018-12-29T09:21:40Z</time>
      </trkpt>
      <trkpt lat="37.766200" lon="-119.855730">
        <ele>1700.934</ele>
        <time>2018-12-29T09:22:00Z</time>
      </trkpt>
      <trkpt lat="37.766160" lon="-119.855590">
        <ele>1701.989</ele>
        <time>2018-12-29T09:22:20Z</time>
      </trkpt>
      <trkpt lat="37.766090" lon="-119.855410">
        <ele>1702.706</ele>
        <time>2018-12-29T09:22:40Z</time>
      </trkpt>
      <trkpt lat="37.766050" lon="-119.855320">
        <ele>1703.226</ele>
        <time>2018-12-29T09:23:00Z</time>
      </trkpt>
      <trkpt lat="37.766000" lon="-119.855240">
        <ele>1703.908</ele>
        <time>2018-12-29T09:23:20Z</time>
      </trkpt>
      <trkpt lat="37.765940" lon="-119.855140">
        <ele>1704.541</ele>
        <time>2018-12-29T09:23:40Z</time>
      </trkpt>
      <trkpt lat="37.765880" lon="-119.855060">
        <ele>1705.569</ele>
        <time>2018-12-29T09:24:00Z</time>
      </trkpt>
      <trkpt lat="37.765790" lon="-119.854960">
        <ele>1706.744</ele>
        <time>2018-12-29T09:24:20Z</time>
      </trkpt>
      <trkpt lat="37.765710" lon="-119.854880">
        <ele>1707.533</ele>
        <time>2018-12-29T09:24:40Z</time>
      </trkpt>
      <trkpt lat="37.765620" lon="-119.854800">
        <ele>1707.747</ele>
        <time>2018-12-29T09:25:00Z</time>
      </trkpt>
      <trkpt lat="37.765520" lon="-119.854730">
        <ele>1707.873</ele>
        <time>2018-12-29T09:25:20Z</time>
      </trkpt>
      <trkpt lat="37.765450" lon="-119.854690">
        <ele>1707.940</ele>
        <time>2018-12-29T09:25:40Z</time>
      </trkpt>
      <trkpt lat="37.765390" lon="-119.854650">
        <ele>1707.934</ele>
        <time>2018-12-29T09:26:00Z</time>
      </trkpt>
      <trkpt lat="37.765270" lon="-119.854600">
        <ele>1707.959</ele>
        <time>2018-12-29T09:26:20Z</time>
      </trkpt>
      <trkpt lat="37.765170" lon="-119.854570">
        <ele>1707.803</ele>
        <time>2018-12-29T09:26:40Z</time>
      </trkpt>
      <trkpt lat="37.764840" lon="-119.854490">
        <ele>1712.923</ele>
        <time>2018-12-29T09:27:00Z</time>
      </trkpt>
      <trkpt lat="37.764640" lon="-119.854440">
        <ele>1715.008</ele>
        <time>2018-12-29T09:27:20Z</time>
      </trkpt>
      <trkpt lat="37.764480" lon="-119.854380">
        <ele>1715.898</ele>
        <time>2018-12-29T09:27:40Z</time>
      </trkpt>
      <trkpt lat="37.764310" lon="-119.854290">
        <ele>1716.286</ele>
        <time>2018-12-29T09:28:00Z</time>
      </trkpt>
      <trkpt lat="37.764240" lon="-119.854250">
        <ele>1716.231</ele>
        <time>2018-12-29T09:28:20Z</time>
      </trkpt>
      <trkpt lat="37.764180" lon="-119.854190">
        <ele>1716.020</ele>
        <time>2018-12-29T09:28:40Z</time>
      </trkpt>
      <trkpt lat="37.764120" lon="-119.854140">
        <ele>1715.974</ele>
        <time>2018-12-29T09:29:00Z</time>
      </trkpt>
      <trkpt lat="37.764090" lon="-119.854100">
        <ele>1715.810</ele>
        <time>2018-12-29T09:29:20Z</time>
      </trkpt>
      <trkpt lat="37.764020" lon="-119.854020">
        <ele>1715.747</ele>
        <time>2018-12-29T09:29:40Z</time>
      </trkpt>
      <trkpt lat="37.763980" lon="-119.853970">
        <ele>1716.851</ele>
        <time>2018-12-29T09:30:00Z</time>
      </trkpt>
      <trkpt lat="37.763920" lon="-119.853900">
        <ele>1717.967</ele>
        <time>2018-12-29T09:30:20Z</time>
      </trkpt>
      <trkpt lat="37.763860" lon="-119.853800">
        <ele>1719.081</ele>
        <time>2018-12-29T09:30:40Z</time>
      </trkpt>
      <trkpt lat="37.763820" lon="-119.853740">
        <ele>1719.319</ele>
        <time>2018-12-29T09:31:00Z</time>
      </trkpt>
      <trkpt lat="37.763760" lon="-119.853640">
        <ele>1719.608</ele>
        <time>2018-12-29T09:31:20Z</time>
      </trkpt>
      <trkpt lat="37.763720" lon="-119.853540">
        <ele>1720.379</ele>
        <time>2018-12-29T09:31:40Z</time>
      </trkpt>
      <trkpt lat="37.763690" lon="-119.853450">
        <ele>1721.177</ele>
        <time>2018-12-29T09:32:00Z</time>
      </trkpt>
      <trkpt lat="37.763670" lon="-119.853400">
        <ele>1722.032</ele>
        <time>2018-12-29T09:32:20Z</time>
      </trkpt>
      <trkpt lat="37.763650" lon="-119.853300">
        <ele>1723.581</ele>
        <time>2018-12-29T09:32:40Z</time>
      </trkpt>
      <trkpt lat="37.763610" lon="-119.853140">
        <ele>1726.035</ele>
        <time>2018-12-29T09:33:00Z</time>
      </trkpt>
      <trkpt lat="37.763600" lon="-119.853060">
        <ele>1727.271</ele>
        <time>2018-12-29T09:33:20Z</time>
      </trkpt>
      <trkpt lat="37.763590" lon="-119.852980">
        <ele>1728.538</ele>
        <time>2018-12-29T09:33:40Z</time>
      </trkpt>
      <trkpt lat="37.763580" lon="-119.852880">
        <ele>1729.632</ele>
        <time>2018-12-29T09:34:00Z</time>
      </trkpt>
      <trkpt lat="37.763580" lon="-119.852730">
        <ele>1730.468</ele>
        <time>2018-12-29T09:34:20Z</time>
      </trkpt>
      <trkpt lat="37.763580" lon="-119.852660">
        <ele>1730.842</ele>
        <time>2018-12-29T09:34:40Z</time>
      </trkpt>
      <trkpt lat="37.763580" lon="-119.852570">
        <ele>1731.126</ele>
        <time>2018-12-29T09:35:00Z</time>
      </trkpt>
      <trkpt lat="37.763590" lon="-119.852510">
        <ele>1731.408</ele>
        <time>2018-12-29T09:35:20Z</time>
      </trkpt>
      <trkpt lat="37.763600" lon="-119.852400">
        <ele>1731.999</ele>
        <time>2018-12-29T09:35:40Z</time>
      </trkpt>
      <trkpt lat="37.763620" lon="-119.852300">
        <ele>1732.317</ele>
        <time>2018-12-29T09:36:00Z</time>
      </trkpt>
      <trkpt lat="37.763660" lon="-119.852150">
        <ele>1732.722</ele>
        <time>2018-12-29T09:36:20Z</time>
      </trkpt>
      <trkpt lat="37.763720" lon="-119.851980">
        <ele>1732.831</ele>
        <time>2018-12-29T09:36:40Z</time>
      </trkpt>
      <trkpt lat="37.763760" lon="-119.851890">
        <ele>1732.595</ele>
        <time>2018-12-29T09:37:00Z</time>
      </trkpt>
      <trkpt lat="37.763800" lon="-119.851800">
        <ele>1733.351</ele>
        <time>2018-12-29T09:37:20Z</time>
      </trkpt>
      <trkpt lat="37.763870" lon="-119.851680">
        <ele>1736.858</ele>
        <time>2018-12-29T09:37:40Z</time>
      </trkpt>
      <trkpt lat="37.764160" lon="-119.851160">
        <ele>1743.562</ele>
        <time>2018-12-29T09:38:00Z</time>
      </trkpt>
      <trkpt lat="37.764210" lon="-119.851060">
        <ele>1744.388</ele>
        <time>2018-12-29T09:38:20Z</time>
      </trkpt>
      <trkpt lat="37.764280" lon="-119.850920">
        <ele>1744.924</ele>
        <time>2018-12-29T09:38:40Z</time>
      </trkpt>
      <trkpt lat="37.764320" lon="-119.850790">
        <ele>1744.826</ele>
        <time>2018-12-29T09:39:00Z</time>
      </trkpt>
      <trkpt lat="37.764360" lon="-119.850640">
        <ele>1745.008</ele>
        <time>2018-12-29T09:39:20Z</time>
      </trkpt>
      <trkpt lat="37.764380" lon="-119.850530">
        <ele>1745.081</ele>
        <time>2018-12-29T09:39:40Z</time>
      </trkpt>
      <trkpt lat="37.764410" lon="-119.850430">
        <ele>1745.169</ele>
        <time>2018-12-29T09:40:00Z</time>
      </trkpt>
      <trkpt lat="37.764430" lon="-119.850270">
        <ele>1745.944</ele>
        <time>2018-12-29T09:40:20Z</time>
      </trkpt>
      <trkpt lat="37.764450" lon="-119.850170">
        <ele>1746.783</ele>
        <time>2018-12-29T09:40:40Z</time>
      </trkpt>
      <trkpt lat="37.764460" lon="-119.850080">
        <ele>1747.587</ele>
        <time>2018-12-29T09:41:00Z</time>
      </trkpt>
      <trkpt lat="37.764460" lon="-119.849960">
        <ele>1748.663</ele>
        <time>2018-12-29T09:41:20Z</time>
      </trkpt>
      <trkpt lat="37.764460" lon="-119.849850">
        <ele>1749.620</ele>
        <time>2018-12-29T09:41:40Z</time>
      </trkpt>
      <trkpt lat="37.764450" lon="-119.849770">
        <ele>1750.084</ele>
        <time>2018-12-29T09:42:00Z</time>
      </trkpt>
      <trkpt lat="37.764450" lon="-119.849680">
        <ele>1750.554</ele>
        <time>2018-12-29T09:42:20Z</time>
      </trkpt>
      <trkpt lat="37.764440" lon="-119.849600">
        <ele>1751.156</ele>
        <time>2018-12-29T09:42:40Z</time>
      </trkpt>
      <trkpt lat="37.764410" lon="-119.849410">
        <ele>1752.211</ele>
        <time>2018-12-29T09:43:00Z</time>
      </trkpt>
      <trkpt lat="37.764360" lon="-119.849110">
        <ele>1754.808</ele>
        <time>2018-12-29T09:43:20Z</time>
      </trkpt>
      <trkpt lat="37.764280" lon="-119.848620">
        <ele>1756.148</ele>
        <time>2018-12-29T09:43:40Z</time>
      </trkpt>
      <trkpt lat="37.764100" lon="-119.847540">
        <ele>1761.496</ele>
        <time>2018-12-29T09:44:00Z</time>
      </trkpt>
      <trkpt lat="37.763920" lon="-119.846350">
        <ele>1767.251</ele>
        <time>2018-12-29T09:44:20Z</time>
      </trkpt>
      <trkpt lat="37.763810" lon="-119.845620">
        <ele>1774.790</ele>
        <time>2018-12-29T09:44:40Z</time>
      </trkpt>
      <trkpt lat="37.763500" lon="-119.843740">
        <ele>1787.184</ele>
        <time>2018-12-29T09:45:00Z</time>
      </trkpt>
      <trkpt lat="37.763320" lon="-119.842640">
        <ele>1790.910</ele>
        <time>2018-12-29T09:45:20Z</time>
      </trkpt>
      <trkpt lat="37.763260" lon="-119.842260">
        <ele>1790.737</ele>
        <time>2018-12-29T09:45:40Z</time>
      </trkpt>
      <trkpt lat="37.763190" lon="-119.841840">
        <ele>1790.711</ele>
        <time>2018-12-29T09:46:00Z</time>
      </trkpt>
      <trkpt lat="37.763180" lon="-119.841780">
        <ele>1790.693</ele>
        <time>2018-12-29T09:46:20Z</time>
      </trkpt>
      <trkpt lat="37.763170" lon="-119.841680">
        <ele>1790.565</ele>
        <time>2018-12-29T09:46:40Z</time>
      </trkpt>
      <trkpt lat="37.763160" lon="-119.841500">
        <ele>1790.321</ele>
        <time>2018-12-29T09:47:00Z</time>
      </trkpt>
      <trkpt lat="37.763150" lon="-119.841180">
        <ele>1790.408</ele>
        <time>2018-12-29T09:47:20Z</time>
      </trkpt>
      <trkpt lat="37.763150" lon="-119.841040">
        <ele>1790.262</ele>
        <time>2018-12-29T09:47:40Z</time>
      </trkpt>
      <trkpt lat="37.763160" lon="-119.840850">
        <ele>1789.620</ele>
        <time>2018-12-29T09:48:00Z</time>
      </trkpt>
      <trkpt lat="37.763200" lon="-119.840450">
        <ele>1788.445</ele>
        <time>2018-12-29T09:48:20Z</time>
      </trkpt>
      <trkpt lat="37.763230" lon="-119.840160">
        <ele>1788.164</ele>
        <time>2018-12-29T09:48:40Z</time>
      </trkpt>
      <trkpt lat="37.763230" lon="-119.840050">
        <ele>1787.448</ele>
        <time>2018-12-29T09:49:00Z</time>
      </trkpt>
      <trkpt lat="37.763230" lon="-119.839910">
        <ele>1786.424</ele>
        <time>2018-12-29T09:49:20Z</time>
      </trkpt>
      <trkpt lat="37.763200" lon="-119.839640">
        <ele>1787.341</ele>
        <time>2018-12-29T09:49:40Z</time>
      </trkpt>
      <trkpt lat="37.763180" lon="-119.839510">
        <ele>1788.615</ele>
        <time>2018-12-29T09:50:00Z</time>
      </trkpt>
      <trkpt lat="37.763140" lon="-119.839360">
        <ele>1790.154</ele>
        <time>2018-12-29T09:50:20Z</time>
      </trkpt>
      <trkpt lat="37.763110" lon="-119.839250">
        <ele>1791.156</ele>
        <time>2018-12-29T09:50:40Z</time>
      </trkpt>
      <trkpt lat="37.763080" lon="-119.839140">
        <ele>1792.011</ele>
        <time>2018-12-29T09:51:00Z</time>
      </trkpt>
      <trkpt lat="37.762940" lon="-119.838760">
        <ele>1795.708</ele>
        <time>2018-12-29T09:51:20Z</time>
      </trkpt>
      <trkpt lat="37.762830" lon="-119.838470">
        <ele>1797.618</ele>
        <time>2018-12-29T09:51:40Z</time>
      </trkpt>
      <trkpt lat="37.762720" lon="-119.838170">
        <ele>1800.036</ele>
        <time>2018-12-29T09:52:00Z</time>
      </trkpt>
      <trkpt lat="37.762670" lon="-119.838030">
        <ele>1800.351</ele>
        <time>2018-12-29T09:52:20Z</time>
      </trkpt>
      <trkpt lat="37.762630" lon="-119.837880">
        <ele>1801.120</ele>
        <time>2018-12-29T09:52:40Z</time>
      </trkpt>
      <trkpt lat="37.762600" lon="-119.837780">
        <ele>1801.134</ele>
        <time>2018-12-29T09:53:00Z</time>
      </trkpt>
      <trkpt lat="37.762580" lon="-119.837690">
        <ele>1801.280</ele>
        <time>2018-12-29T09:53:20Z</time>
      </trkpt>
      <trkpt lat="37.762520" lon="-119.837390">
        <ele>1801.267</ele>
        <time>2018-12-29T09:53:40Z</time>
      </trkpt>
      <trkpt lat="37.762490" lon="-119.837230">
        <ele>1801.011</ele>
        <time>2018-12-29T09:54:00Z</time>
      </trkpt>
      <trkpt lat="37.762480" lon="-119.837120">
        <ele>1801.055</ele>
        <time>2018-12-29T09:54:20Z</time>
      </trkpt>
      <trkpt lat="37.762460" lon="-119.836780">
        <ele>1799.807</ele>
        <time>2018-12-29T09:54:40Z</time>
      </trkpt>
      <trkpt lat="37.762440" lon="-119.836350">
        <ele>1796.017</ele>
        <time>2018-12-29T09:55:00Z</time>
      </trkpt>
      <trkpt lat="37.762440" lon="-119.836070">
        <ele>1795.208</ele>
        <time>2018-12-29T09:55:20Z</time>
      </trkpt>
      <trkpt lat="37.762420" lon="-119.835030">
        <ele>1796.568</ele>
        <time>2018-12-29T09:55:40Z</time>
      </trkpt>
      <trkpt lat="37.762420" lon="-119.834810">
        <ele>1796.766</ele>
        <time>2018-12-29T09:56:00Z</time>
      </trkpt>
      <trkpt lat="37.762410" lon="-119.834640">
        <ele>1796.571</ele>
        <time>2018-12-29T09:56:20Z</time>
      </trkpt>
      <trkpt lat="37.762400" lon="-119.834530">
        <ele>1796.390</ele>
        <time>2018-12-29T09:56:40Z</time>
      </trkpt>
      <trkpt lat="37.762370" lon="-119.834350">
        <ele>1795.694</ele>
        <time>2018-12-29T09:57:00Z</time>
      </trkpt>
      <trkpt lat="37.762350" lon="-119.834270">
        <ele>1795.360</ele>
        <time>2018-12-29T09:57:20Z</time>
      </trkpt>
      <trkpt lat="37.762310" lon="-119.834140">
        <ele>1794.937</ele>
        <time>2018-12-29T09:57:40Z</time>
      </trkpt>
      <trkpt lat="37.762270" lon="-119.834030">
        <ele>1794.631</ele>
        <time>2018-12-29T09:58:00Z</time>
      </trkpt>
      <trkpt lat="37.762230" lon="-119.833920">
        <ele>1796.181</ele>
        <time>2018-12-29T09:58:20Z</time>
      </trkpt>
      <trkpt lat="37.762190" lon="-119.833840">
        <ele>1797.161</ele>
        <time>2018-12-29T09:58:40Z</time>
      </trkpt>
      <trkpt lat="37.762110" lon="-119.833720">
        <ele>1798.617</ele>
        <time>2018-12-29T09:59:00Z</time>
      </trkpt>
      <trkpt lat="37.762020" lon="-119.833590">
        <ele>1800.408</ele>
        <time>2018-12-29T09:59:20Z</time>
      </trkpt>
      <trkpt lat="37.761960" lon="-119.833530">
        <ele>1800.761</ele>
        <time>2018-12-29T09:59:40Z</time>
      </trkpt>
      <trkpt lat="37.761900" lon="-119.833460">
        <ele>1801.489</ele>
        <time>2018-12-29T10:00:00Z</time>
      </trkpt>
      <trkpt lat="37.761760" lon="-119.833330">
        <ele>1802.914</ele>
        <time>2018-12-29T10:00:20Z</time>
      </trkpt>
      <trkpt lat="37.761700" lon="-119.833290">
        <ele>1803.013</ele>
        <time>2018-12-29T10:00:40Z</time>
      </trkpt>
      <trkpt lat="37.761590" lon="-119.833220">
        <ele>1803.067</ele>
        <time>2018-12-29T10:01:00Z</time>
      </trkpt>
      <trkpt lat="37.761290" lon="-119.833070">
        <ele>1803.853</ele>
        <time>2018-12-29T10:01:20Z</time>
      </trkpt>
      <trkpt lat="37.760790" lon="-119.832870">
        <ele>1811.780</ele>
        <time>2018-12-29T10:01:40Z</time>
      </trkpt>
      <trkpt lat="37.760420" lon="-119.832710">
        <ele>1816.934</ele>
        <time>2018-12-29T10:02:00Z</time>
      </trkpt>
      <trkpt lat="37.760110" lon="-119.832580">
        <ele>1816.933</ele>
        <time>2018-12-29T10:02:20Z</time>
      </trkpt>
      <trkpt lat="37.759960" lon="-119.832500">
        <ele>1815.823</ele>
        <time>2018-12-29T10:02:40Z</time>
      </trkpt>
      <trkpt lat="37.759840" lon="-119.832430">
        <ele>1814.715</ele>
        <time>2018-12-29T10:03:00Z</time>
      </trkpt>
      <trkpt lat="37.759760" lon="-119.832380">
        <ele>1813.008</ele>
        <time>2018-12-29T10:03:20Z</time>
      </trkpt>
      <trkpt lat="37.759660" lon="-119.832290">
        <ele>1810.076</ele>
        <time>2018-12-29T10:03:40Z</time>
      </trkpt>
      <trkpt lat="37.759600" lon="-119.832240">
        <ele>1807.724</ele>
        <time>2018-12-29T10:04:00Z</time>
      </trkpt>
      <trkpt lat="37.759520" lon="-119.832150">
        <ele>1806.179</ele>
        <time>2018-12-29T10:04:20Z</time>
      </trkpt>
      <trkpt lat="37.759420" lon="-119.832010">
        <ele>1805.438</ele>
        <time>2018-12-29T10:04:40Z</time>
      </trkpt>
      <trkpt lat="37.759350" lon="-119.831910">
        <ele>1804.822</ele>
        <time>2018-12-29T10:05:00Z</time>
      </trkpt>
      <trkpt lat="37.759300" lon="-119.831820">
        <ele>1803.938</ele>
        <time>2018-12-29T10:05:20Z</time>
      </trkpt>
      <trkpt lat="37.759270" lon="-119.831740">
        <ele>1803.665</ele>
        <time>2018-12-29T10:05:40Z</time>
      </trkpt>
      <trkpt lat="37.759230" lon="-119.831650">
        <ele>1803.169</ele>
        <time>2018-12-29T10:06:00Z</time>
      </trkpt>
      <trkpt lat="37.759200" lon="-119.831540">
        <ele>1802.589</ele>
        <time>2018-12-29T10:06:20Z</time>
      </trkpt>
      <trkpt lat="37.759160" lon="-119.831420">
        <ele>1801.906</ele>
        <time>2018-12-29T10:06:40Z</time>
      </trkpt>
      <trkpt lat="37.758930" lon="-119.830510">
        <ele>1802.026</ele>
        <time>2018-12-29T10:07:00Z</time>
      </trkpt>
      <trkpt lat="37.758720" lon="-119.829680">
        <ele>1803.608</ele>
        <time>2018-12-29T10:07:20Z</time>
      </trkpt>
      <trkpt lat="37.758540" lon="-119.828910">
        <ele>1806.931</ele>
        <time>2018-12-29T10:07:40Z</time>
      </trkpt>
      <trkpt lat="37.758370" lon="-119.828270">
        <ele>1808.039</ele>
        <time>2018-12-29T10:08:00Z</time>
      </trkpt>
      <trkpt lat="37.758320" lon="-119.828140">
        <ele>1808.534</ele>
        <time>2018-12-29T10:08:20Z</time>
      </trkpt>
      <trkpt lat="37.758280" lon="-119.828040">
        <ele>1809.153</ele>
        <time>2018-12-29T10:08:40Z</time>
      </trkpt>
      <trkpt lat="37.758220" lon="-119.827920">
        <ele>1809.717</ele>
        <time>2018-12-29T10:09:00Z</time>
      </trkpt>
      <trkpt lat="37.758150" lon="-119.827800">
        <ele>1810.973</ele>
        <time>2018-12-29T10:09:20Z</time>
      </trkpt>
      <trkpt lat="37.758090" lon="-119.827710">
        <ele>1811.930</ele>
        <time>2018-12-29T10:09:40Z</time>
      </trkpt>
      <trkpt lat="37.758010" lon="-119.827620">
        <ele>1812.774</ele>
        <time>2018-12-29T10:10:00Z</time>
      </trkpt>
      <trkpt lat="37.757940" lon="-119.827540">
        <ele>1813.323</ele>
        <time>2018-12-29T10:10:20Z</time>
      </trkpt>
      <trkpt lat="37.757790" lon="-119.827410">
        <ele>1814.183</ele>
        <time>2018-12-29T10:10:40Z</time>
      </trkpt>
      <trkpt lat="37.757540" lon="-119.827230">
        <ele>1814.511</ele>
        <time>2018-12-29T10:11:00Z</time>
      </trkpt>
      <trkpt lat="37.757200" lon="-119.826990">
        <ele>1817.808</ele>
        <time>2018-12-29T10:11:20Z</time>
      </trkpt>
      <trkpt lat="37.756850" lon="-119.826770">
        <ele>1824.325</ele>
        <time>2018-12-29T10:11:40Z</time>
      </trkpt>
      <trkpt lat="37.756530" lon="-119.826530">
        <ele>1828.943</ele>
        <time>2018-12-29T10:12:00Z</time>
      </trkpt>
      <trkpt lat="37.756290" lon="-119.826350">
        <ele>1830.078</ele>
        <time>2018-12-29T10:12:20Z</time>
      </trkpt>
      <trkpt lat="37.755880" lon="-119.826060">
        <ele>1827.487</ele>
        <time>2018-12-29T10:12:40Z</time>
      </trkpt>
      <trkpt lat="37.755590" lon="-119.825850">
        <ele>1826.831</ele>
        <time>2018-12-29T10:13:00Z</time>
      </trkpt>
      <trkpt lat="37.755450" lon="-119.825770">
        <ele>1828.427</ele>
        <time>2018-12-29T10:13:20Z</time>
      </trkpt>
      <trkpt lat="37.755280" lon="-119.825690">
        <ele>1831.084</ele>
        <time>2018-12-29T10:13:40Z</time>
      </trkpt>
      <trkpt lat="37.755150" lon="-119.825640">
        <ele>1832.958</ele>
        <time>2018-12-29T10:14:00Z</time>
      </trkpt>
      <trkpt lat="37.755000" lon="-119.825580">
        <ele>1836.812</ele>
        <time>2018-12-29T10:14:20Z</time>
      </trkpt>
      <trkpt lat="37.754920" lon="-119.825560">
        <ele>1838.532</ele>
        <time>2018-12-29T10:14:40Z</time>
      </trkpt>
      <trkpt lat="37.754840" lon="-119.825540">
        <ele>1839.905</ele>
        <time>2018-12-29T10:15:00Z</time>
      </trkpt>
      <trkpt lat="37.754700" lon="-119.825520">
        <ele>1840.408</ele>
        <time>2018-12-29T10:15:20Z</time>
      </trkpt>
      <trkpt lat="37.754560" lon="-119.825500">
        <ele>1840.814</ele>
        <time>2018-12-29T10:15:40Z</time>
      </trkpt>
      <trkpt lat="37.754420" lon="-119.825500">
        <ele>1840.832</ele>
        <time>2018-12-29T10:16:00Z</time>
      </trkpt>
      <trkpt lat="37.753880" lon="-119.825510">
        <ele>1844.667</ele>
        <time>2018-12-29T10:16:20Z</time>
      </trkpt>
      <trkpt lat="37.753580" lon="-119.825520">
        <ele>1848.596</ele>
        <time>2018-12-29T10:16:40Z</time>
      </trkpt>
      <trkpt lat="37.753260" lon="-119.825510">
        <ele>1850.160</ele>
        <time>2018-12-29T10:17:00Z</time>
      </trkpt>
      <trkpt lat="37.753210" lon="-119.825510">
        <ele>1850.346</ele>
        <time>2018-12-29T10:17:20Z</time>
      </trkpt>
      <trkpt lat="37.753150" lon="-119.825500">
        <ele>1850.893</ele>
        <time>2018-12-29T10:17:40Z</time>
      </trkpt>
      <trkpt lat="37.753070" lon="-119.825490">
        <ele>1851.377</ele>
        <time>2018-12-29T10:18:00Z</time>
      </trkpt>
      <trkpt lat="37.752960" lon="-119.825470">
        <ele>1851.725</ele>
        <time>2018-12-29T10:18:20Z</time>
      </trkpt>
      <trkpt lat="37.752870" lon="-119.825440">
        <ele>1852.126</ele>
        <time>2018-12-29T10:18:40Z</time>
      </trkpt>
      <trkpt lat="37.752750" lon="-119.825400">
        <ele>1852.908</ele>
        <time>2018-12-29T10:19:00Z</time>
      </trkpt>
      <trkpt lat="37.752670" lon="-119.825360">
        <ele>1853.508</ele>
        <time>2018-12-29T10:19:20Z</time>
      </trkpt>
      <trkpt lat="37.752570" lon="-119.825310">
        <ele>1853.465</ele>
        <time>2018-12-29T10:19:40Z</time>
      </trkpt>
      <trkpt lat="37.752490" lon="-119.825260">
        <ele>1852.953</ele>
        <time>2018-12-29T10:20:00Z</time>
      </trkpt>
      <trkpt lat="37.752420" lon="-119.825200">
        <ele>1852.118</ele>
        <time>2018-12-29T10:20:20Z</time>
      </trkpt>
      <trkpt lat="37.752330" lon="-119.825120">
        <ele>1851.197</ele>
        <time>2018-12-29T10:20:40Z</time>
      </trkpt>
      <trkpt lat="37.752250" lon="-119.825040">
        <ele>1850.811</ele>
        <time>2018-12-29T10:21:00Z</time>
      </trkpt>
      <trkpt lat="37.752150" lon="-119.824910">
        <ele>1850.387</ele>
        <time>2018-12-29T10:21:20Z</time>
      </trkpt>
      <trkpt lat="37.752090" lon="-119.824820">
        <ele>1850.044</ele>
        <time>2018-12-29T10:21:40Z</time>
      </trkpt>
      <trkpt lat="37.752030" lon="-119.824710">
        <ele>1849.818</ele>
        <time>2018-12-29T10:22:00Z</time>
      </trkpt>
      <trkpt lat="37.751960" lon="-119.824560">
        <ele>1849.615</ele>
        <time>2018-12-29T10:22:20Z</time>
      </trkpt>
      <trkpt lat="37.751910" lon="-119.824430">
        <ele>1849.465</ele>
        <time>2018-12-29T10:22:40Z</time>
      </trkpt>
      <trkpt lat="37.751880" lon="-119.824320">
        <ele>1849.411</ele>
        <time>2018-12-29T10:23:00Z</time>
      </trkpt>
      <trkpt lat="37.751850" lon="-119.824220">
        <ele>1849.408</ele>
        <time>2018-12-29T10:23:20Z</time>
      </trkpt>
      <trkpt lat="37.751810" lon="-119.824050">
        <ele>1849.654</ele>
        <time>2018-12-29T10:23:40Z</time>
      </trkpt>
      <trkpt lat="37.751790" lon="-119.823880">
        <ele>1850.092</ele>
        <time>2018-12-29T10:24:00Z</time>
      </trkpt>
      <trkpt lat="37.751760" lon="-119.823730">
        <ele>1849.917</ele>
        <time>2018-12-29T10:24:20Z</time>
      </trkpt>
      <trkpt lat="37.751740" lon="-119.823610">
        <ele>1849.776</ele>
        <time>2018-12-29T10:24:40Z</time>
      </trkpt>
      <trkpt lat="37.751710" lon="-119.823420">
        <ele>1849.520</ele>
        <time>2018-12-29T10:25:00Z</time>
      </trkpt>
      <trkpt lat="37.751690" lon="-119.823260">
        <ele>1849.436</ele>
        <time>2018-12-29T10:25:20Z</time>
      </trkpt>
      <trkpt lat="37.751680" lon="-119.823150">
        <ele>1849.413</ele>
        <time>2018-12-29T10:25:40Z</time>
      </trkpt>
      <trkpt lat="37.751660" lon="-119.823020">
        <ele>1849.147</ele>
        <time>2018-12-29T10:26:00Z</time>
      </trkpt>
      <trkpt lat="37.751660" lon="-119.822890">
        <ele>1849.258</ele>
        <time>2018-12-29T10:26:20Z</time>
      </trkpt>
      <trkpt lat="37.751660" lon="-119.822800">
        <ele>1849.252</ele>
        <time>2018-12-29T10:26:40Z</time>
      </trkpt>
      <trkpt lat="37.751670" lon="-119.822690">
        <ele>1849.417</ele>
        <time>2018-12-29T10:27:00Z</time>
      </trkpt>
      <trkpt lat="37.751680" lon="-119.822540">
        <ele>1849.808</ele>
        <time>2018-12-29T10:27:20Z</time>
      </trkpt>
      <trkpt lat="37.751690" lon="-119.822420">
        <ele>1850.378</ele>
        <time>2018-12-29T10:27:40Z</time>
      </trkpt>
      <trkpt lat="37.751730" lon="-119.822290">
        <ele>1851.456</ele>
        <time>2018-12-29T10:28:00Z</time>
      </trkpt>
      <trkpt lat="37.751770" lon="-119.822160">
        <ele>1852.791</ele>
        <time>2018-12-29T10:28:20Z</time>
      </trkpt>
      <trkpt lat="37.751810" lon="-119.822040">
        <ele>1853.840</ele>
        <time>2018-12-29T10:28:40Z</time>
      </trkpt>
      <trkpt lat="37.751860" lon="-119.821940">
        <ele>1854.754</ele>
        <time>2018-12-29T10:29:00Z</time>
      </trkpt>
      <trkpt lat="37.751890" lon="-119.821880">
        <ele>1855.270</ele>
        <time>2018-12-29T10:29:20Z</time>
      </trkpt>
      <trkpt lat="37.751950" lon="-119.821790">
        <ele>1856.237</ele>
        <time>2018-12-29T10:29:40Z</time>
      </trkpt>
      <trkpt lat="37.752060" lon="-119.821630">
        <ele>1858.161</ele>
        <time>2018-12-29T10:30:00Z</time>
      </trkpt>
      <trkpt lat="37.752180" lon="-119.821480">
        <ele>1858.879</ele>
        <time>2018-12-29T10:30:20Z</time>
      </trkpt>
      <trkpt lat="37.752290" lon="-119.821380">
        <ele>1858.705</ele>
        <time>2018-12-29T10:30:40Z</time>
      </trkpt>
      <trkpt lat="37.752390" lon="-119.821300">
        <ele>1858.525</ele>
        <time>2018-12-29T10:31:00Z</time>
      </trkpt>
      <trkpt lat="37.752480" lon="-119.821250">
        <ele>1858.208</ele>
        <time>2018-12-29T10:31:20Z</time>
      </trkpt>
      <trkpt lat="37.752560" lon="-119.821200">
        <ele>1857.870</ele>
        <time>2018-12-29T10:31:40Z</time>
      </trkpt>
      <trkpt lat="37.752760" lon="-119.821130">
        <ele>1857.348</ele>
        <time>2018-12-29T10:32:00Z</time>
      </trkpt>
      <trkpt lat="37.752910" lon="-119.821100">
        <ele>1857.153</ele>
        <time>2018-12-29T10:32:20Z</time>
      </trkpt>
      <trkpt lat="37.753080" lon="-119.821090">
        <ele>1857.792</ele>
        <time>2018-12-29T10:32:40Z</time>
      </trkpt>
      <trkpt lat="37.753370" lon="-119.821060">
        <ele>1858.746</ele>
        <time>2018-12-29T10:33:00Z</time>
      </trkpt>
      <trkpt lat="37.753550" lon="-119.821020">
        <ele>1859.252</ele>
        <time>2018-12-29T10:33:20Z</time>
      </trkpt>
      <trkpt lat="37.753730" lon="-119.820960">
        <ele>1859.769</ele>
        <time>2018-12-29T10:33:40Z</time>
      </trkpt>
      <trkpt lat="37.753860" lon="-119.820900">
        <ele>1860.043</ele>
        <time>2018-12-29T10:34:00Z</time>
      </trkpt>
      <trkpt lat="37.754000" lon="-119.820830">
        <ele>1860.282</ele>
        <time>2018-12-29T10:34:20Z</time>
      </trkpt>
      <trkpt lat="37.754120" lon="-119.820770">
        <ele>1860.843</ele>
        <time>2018-12-29T10:34:40Z</time>
      </trkpt>
      <trkpt lat="37.754270" lon="-119.820670">
        <ele>1861.717</ele>
        <time>2018-12-29T10:35:00Z</time>
      </trkpt>
      <trkpt lat="37.754380" lon="-119.820580">
        <ele>1862.808</ele>
        <time>2018-12-29T10:35:20Z</time>
      </trkpt>
      <trkpt lat="37.754480" lon="-119.820480">
        <ele>1863.461</ele>
        <time>2018-12-29T10:35:40Z</time>
      </trkpt>
      <trkpt lat="37.754600" lon="-119.820330">
        <ele>1864.619</ele>
        <time>2018-12-29T10:36:00Z</time>
      </trkpt>
      <trkpt lat="37.754780" lon="-119.820100">
        <ele>1867.624</ele>
        <time>2018-12-29T10:36:20Z</time>
      </trkpt>
      <trkpt lat="37.754970" lon="-119.819830">
        <ele>1870.183</ele>
        <time>2018-12-29T10:36:40Z</time>
      </trkpt>
      <trkpt lat="37.755120" lon="-119.819630">
        <ele>1871.357</ele>
        <time>2018-12-29T10:37:00Z</time>
      </trkpt>
      <trkpt lat="37.755370" lon="-119.819290">
        <ele>1874.953</ele>
        <time>2018-12-29T10:37:20Z</time>
      </trkpt>
      <trkpt lat="37.755570" lon="-119.818990">
        <ele>1874.960</ele>
        <time>2018-12-29T10:37:40Z</time>
      </trkpt>
      <trkpt lat="37.755740" lon="-119.818730">
        <ele>1873.884</ele>
        <time>2018-12-29T10:38:00Z</time>
      </trkpt>
      <trkpt lat="37.755860" lon="-119.818480">
        <ele>1871.384</ele>
        <time>2018-12-29T10:38:20Z</time>
      </trkpt>
      <trkpt lat="37.755900" lon="-119.818380">
        <ele>1871.507</ele>
        <time>2018-12-29T10:38:40Z</time>
      </trkpt>
      <trkpt lat="37.755930" lon="-119.818260">
        <ele>1871.817</ele>
        <time>2018-12-29T10:39:00Z</time>
      </trkpt>
      <trkpt lat="37.755960" lon="-119.818130">
        <ele>1872.708</ele>
        <time>2018-12-29T10:39:20Z</time>
      </trkpt>
      <trkpt lat="37.755980" lon="-119.818010">
        <ele>1873.611</ele>
        <time>2018-12-29T10:39:40Z</time>
      </trkpt>
      <trkpt lat="37.755990" lon="-119.817920">
        <ele>1874.329</ele>
        <time>2018-12-29T10:40:00Z</time>
      </trkpt>
      <trkpt lat="37.755990" lon="-119.817810">
        <ele>1874.654</ele>
        <time>2018-12-29T10:40:20Z</time>
      </trkpt>
      <trkpt lat="37.755990" lon="-119.817670">
        <ele>1875.143</ele>
        <time>2018-12-29T10:40:40Z</time>
      </trkpt>
      <trkpt lat="37.755970" lon="-119.817530">
        <ele>1874.927</ele>
        <time>2018-12-29T10:41:00Z</time>
      </trkpt>
      <trkpt lat="37.755950" lon="-119.817410">
        <ele>1874.923</ele>
        <time>2018-12-29T10:41:20Z</time>
      </trkpt>
      <trkpt lat="37.755920" lon="-119.817270">
        <ele>1874.810</ele>
        <time>2018-12-29T10:41:40Z</time>
      </trkpt>
      <trkpt lat="37.755880" lon="-119.817130">
        <ele>1874.464</ele>
        <time>2018-12-29T10:42:00Z</time>
      </trkpt>
      <trkpt lat="37.755840" lon="-119.817010">
        <ele>1873.938</ele>
        <time>2018-12-29T10:42:20Z</time>
      </trkpt>
      <trkpt lat="37.755810" lon="-119.816880">
        <ele>1873.670</ele>
        <time>2018-12-29T10:42:40Z</time>
      </trkpt>
      <trkpt lat="37.755770" lon="-119.816780">
        <ele>1872.917</ele>
        <time>2018-12-29T10:43:00Z</time>
      </trkpt>
      <trkpt lat="37.755700" lon="-119.816640">
        <ele>1872.408</ele>
        <time>2018-12-29T10:43:20Z</time>
      </trkpt>
      <trkpt lat="37.755620" lon="-119.816520">
        <ele>1872.686</ele>
        <time>2018-12-29T10:43:40Z</time>
      </trkpt>
      <trkpt lat="37.755540" lon="-119.816440">
        <ele>1873.194</ele>
        <time>2018-12-29T10:44:00Z</time>
      </trkpt>
      <trkpt lat="37.755460" lon="-119.816390">
        <ele>1873.249</ele>
        <time>2018-12-29T10:44:20Z</time>
      </trkpt>
      <trkpt lat="37.755390" lon="-119.816350">
        <ele>1873.518</ele>
        <time>2018-12-29T10:44:40Z</time>
      </trkpt>
      <trkpt lat="37.755270" lon="-119.816270">
        <ele>1874.542</ele>
        <time>2018-12-29T10:45:00Z</time>
      </trkpt>
      <trkpt lat="37.755150" lon="-119.816200">
        <ele>1876.168</ele>
        <time>2018-12-29T10:45:20Z</time>
      </trkpt>
      <trkpt lat="37.754970" lon="-119.816110">
        <ele>1878.755</ele>
        <time>2018-12-29T10:45:40Z</time>
      </trkpt>
      <trkpt lat="37.754820" lon="-119.816060">
        <ele>1880.479</ele>
        <time>2018-12-29T10:46:00Z</time>
      </trkpt>
      <trkpt lat="37.754710" lon="-119.816030">
        <ele>1882.588</ele>
        <time>2018-12-29T10:46:20Z</time>
      </trkpt>
      <trkpt lat="37.754580" lon="-119.816000">
        <ele>1884.524</ele>
        <time>2018-12-29T10:46:40Z</time>
      </trkpt>
      <trkpt lat="37.754420" lon="-119.815950">
        <ele>1885.426</ele>
        <time>2018-12-29T10:47:00Z</time>
      </trkpt>
      <trkpt lat="37.754280" lon="-119.815910">
        <ele>1885.908</ele>
        <time>2018-12-29T10:47:20Z</time>
      </trkpt>
      <trkpt lat="37.754160" lon="-119.815860">
        <ele>1886.161</ele>
        <time>2018-12-29T10:47:40Z</time>
      </trkpt>
      <trkpt lat="37.754050" lon="-119.815800">
        <ele>1886.279</ele>
        <time>2018-12-29T10:48:00Z</time>
      </trkpt>
      <trkpt lat="37.753930" lon="-119.815720">
        <ele>1886.514</ele>
        <time>2018-12-29T10:48:20Z</time>
      </trkpt>
      <trkpt lat="37.753790" lon="-119.815600">
        <ele>1887.163</ele>
        <time>2018-12-29T10:48:40Z</time>
      </trkpt>
      <trkpt lat="37.753710" lon="-119.815530">
        <ele>1886.667</ele>
        <time>2018-12-29T10:49:00Z</time>
      </trkpt>
      <trkpt lat="37.753640" lon="-119.815450">
        <ele>1886.713</ele>
        <time>2018-12-29T10:49:20Z</time>
      </trkpt>
      <trkpt lat="37.753580" lon="-119.815360">
        <ele>1887.630</ele>
        <time>2018-12-29T10:49:40Z</time>
      </trkpt>
      <trkpt lat="37.753510" lon="-119.815240">
        <ele>1887.974</ele>
        <time>2018-12-29T10:50:00Z</time>
      </trkpt>
      <trkpt lat="37.753460" lon="-119.815130">
        <ele>1887.514</ele>
        <time>2018-12-29T10:50:20Z</time>
      </trkpt>
      <trkpt lat="37.753410" lon="-119.815030">
        <ele>1887.554</ele>
        <time>2018-12-29T10:50:40Z</time>
      </trkpt>
      <trkpt lat="37.753370" lon="-119.814930">
        <ele>1887.509</ele>
        <time>2018-12-29T10:51:00Z</time>
      </trkpt>
      <trkpt lat="37.753340" lon="-119.814810">
        <ele>1887.908</ele>
        <time>2018-12-29T10:51:20Z</time>
      </trkpt>
      <trkpt lat="37.753310" lon="-119.814670">
        <ele>1888.484</ele>
        <time>2018-12-29T10:51:40Z</time>
      </trkpt>
      <trkpt lat="37.753280" lon="-119.814480">
        <ele>1888.392</ele>
        <time>2018-12-29T10:52:00Z</time>
      </trkpt>
      <trkpt lat="37.753270" lon="-119.814290">
        <ele>1888.397</ele>
        <time>2018-12-29T10:52:20Z</time>
      </trkpt>
      <trkpt lat="37.753270" lon="-119.814200">
        <ele>1887.716</ele>
        <time>2018-12-29T10:52:40Z</time>
      </trkpt>
      <trkpt lat="37.753280" lon="-119.814130">
        <ele>1887.810</ele>
        <time>2018-12-29T10:53:00Z</time>
      </trkpt>
      <trkpt lat="37.753300" lon="-119.814030">
        <ele>1888.166</ele>
        <time>2018-12-29T10:53:20Z</time>
      </trkpt>
      <trkpt lat="37.753310" lon="-119.813910">
        <ele>1886.953</ele>
        <time>2018-12-29T10:53:40Z</time>
      </trkpt>
      <trkpt lat="37.753350" lon="-119.813770">
        <ele>1887.097</ele>
        <time>2018-12-29T10:54:00Z</time>
      </trkpt>
      <trkpt lat="37.753380" lon="-119.813630">
        <ele>1886.951</ele>
        <time>2018-12-29T10:54:20Z</time>
      </trkpt>
      <trkpt lat="37.753430" lon="-119.813470">
        <ele>1887.801</ele>
        <time>2018-12-29T10:54:40Z</time>
      </trkpt>
      <trkpt lat="37.753470" lon="-119.813300">
        <ele>1887.811</ele>
        <time>2018-12-29T10:55:00Z</time>
      </trkpt>
      <trkpt lat="37.753510" lon="-119.813180">
        <ele>1888.208</ele>
        <time>2018-12-29T10:55:20Z</time>
      </trkpt>
      <trkpt lat="37.753540" lon="-119.813070">
        <ele>1888.298</ele>
        <time>2018-12-29T10:55:40Z</time>
      </trkpt>
      <trkpt lat="37.753580" lon="-119.812950">
        <ele>1888.816</ele>
        <time>2018-12-29T10:56:00Z</time>
      </trkpt>
      <trkpt lat="37.753610" lon="-119.812830">
        <ele>1889.161</ele>
        <time>2018-12-29T10:56:20Z</time>
      </trkpt>
      <trkpt lat="37.753640" lon="-119.812690">
        <ele>1889.480</ele>
        <time>2018-12-29T10:56:40Z</time>
      </trkpt>
      <trkpt lat="37.753660" lon="-119.812540">
        <ele>1889.374</ele>
        <time>2018-12-29T10:57:00Z</time>
      </trkpt>
      <trkpt lat="37.753680" lon="-119.812420">
        <ele>1889.560</ele>
        <time>2018-12-29T10:57:20Z</time>
      </trkpt>
      <trkpt lat="37.753690" lon="-119.812300">
        <ele>1889.497</ele>
        <time>2018-12-29T10:57:40Z</time>
      </trkpt>
      <trkpt lat="37.753690" lon="-119.812150">
        <ele>1888.991</ele>
        <time>2018-12-29T10:58:00Z</time>
      </trkpt>
      <trkpt lat="37.753680" lon="-119.812070">
        <ele>1888.372</ele>
        <time>2018-12-29T10:58:20Z</time>
      </trkpt>
      <trkpt lat="37.753680" lon="-119.812010">
        <ele>1888.613</ele>
        <time>2018-12-29T10:58:40Z</time>
      </trkpt>
      <trkpt lat="37.753670" lon="-119.811940">
        <ele>1888.614</ele>
        <time>2018-12-29T10:59:00Z</time>
      </trkpt>
      <trkpt lat="37.753660" lon="-119.811900">
        <ele>1888.508</ele>
        <time>2018-12-29T10:59:20Z</time>
      </trkpt>
      <trkpt lat="37.753650" lon="-119.811820">
        <ele>1888.850</ele>
        <time>2018-12-29T10:59:40Z</time>
      </trkpt>
      <trkpt lat="37.753630" lon="-119.811720">
        <ele>1890.648</ele>
        <time>2018-12-29T11:00:00Z</time>
      </trkpt>
      <trkpt lat="37.753600" lon="-119.811640">
        <ele>1892.083</ele>
        <time>2018-12-29T11:00:20Z</time>
      </trkpt>
      <trkpt lat="37.753570" lon="-119.811540">
        <ele>1894.122</ele>
        <time>2018-12-29T11:00:40Z</time>
      </trkpt>
      <trkpt lat="37.753530" lon="-119.811450">
        <ele>1895.586</ele>
        <time>2018-12-29T11:01:00Z</time>
      </trkpt>
      <trkpt lat="37.753510" lon="-119.811390">
        <ele>1896.532</ele>
        <time>2018-12-29T11:01:20Z</time>
      </trkpt>
      <trkpt lat="37.753470" lon="-119.811320">
        <ele>1897.019</ele>
        <time>2018-12-29T11:01:40Z</time>
      </trkpt>
      <trkpt lat="37.753410" lon="-119.811220">
        <ele>1898.093</ele>
        <time>2018-12-29T11:02:00Z</time>
      </trkpt>
      <trkpt lat="37.753320" lon="-119.811080">
        <ele>1899.072</ele>
        <time>2018-12-29T11:02:20Z</time>
      </trkpt>
      <trkpt lat="37.753250" lon="-119.810980">
        <ele>1899.413</ele>
        <time>2018-12-29T11:02:40Z</time>
      </trkpt>
      <trkpt lat="37.753100" lon="-119.810830">
        <ele>1899.614</ele>
        <time>2018-12-29T11:03:00Z</time>
      </trkpt>
      <trkpt lat="37.752990" lon="-119.810720">
        <ele>1899.708</ele>
        <time>2018-12-29T11:03:20Z</time>
      </trkpt>
      <trkpt lat="37.752800" lon="-119.810530">
        <ele>1899.790</ele>
        <time>2018-12-29T11:03:40Z</time>
      </trkpt>
      <trkpt lat="37.752530" lon="-119.810280">
        <ele>1899.768</ele>
        <time>2018-12-29T11:04:00Z</time>
      </trkpt>
      <trkpt lat="37.752180" lon="-119.809930">
        <ele>1900.343</ele>
        <time>2018-12-29T11:04:20Z</time>
      </trkpt>
      <trkpt lat="37.751860" lon="-119.809640">
        <ele>1904.792</ele>
        <time>2018-12-29T11:04:40Z</time>
      </trkpt>
      <trkpt lat="37.751510" lon="-119.809300">
        <ele>1909.126</ele>
        <time>2018-12-29T11:05:00Z</time>
      </trkpt>
      <trkpt lat="37.751320" lon="-119.809090">
        <ele>1911.072</ele>
        <time>2018-12-29T11:05:20Z</time>
      </trkpt>
      <trkpt lat="37.751130" lon="-119.808850">
        <ele>1912.689</ele>
        <time>2018-12-29T11:05:40Z</time>
      </trkpt>
      <trkpt lat="37.750960" lon="-119.808650">
        <ele>1913.513</ele>
        <time>2018-12-29T11:06:00Z</time>
      </trkpt>
      <trkpt lat="37.750840" lon="-119.808520">
        <ele>1913.544</ele>
        <time>2018-12-29T11:06:20Z</time>
      </trkpt>
      <trkpt lat="37.750750" lon="-119.808460">
        <ele>1913.105</ele>
        <time>2018-12-29T11:06:40Z</time>
      </trkpt>
      <trkpt lat="37.750660" lon="-119.808390">
        <ele>1913.215</ele>
        <time>2018-12-29T11:07:00Z</time>
      </trkpt>
      <trkpt lat="37.750390" lon="-119.808260">
        <ele>1914.908</ele>
        <time>2018-12-29T11:07:20Z</time>
      </trkpt>
      <trkpt lat="37.750060" lon="-119.808120">
        <ele>1914.097</ele>
        <time>2018-12-29T11:07:40Z</time>
      </trkpt>
      <trkpt lat="37.749530" lon="-119.807890">
        <ele>1912.665</ele>
        <time>2018-12-29T11:08:00Z</time>
      </trkpt>
      <trkpt lat="37.749110" lon="-119.807740">
        <ele>1913.440</ele>
        <time>2018-12-29T11:08:20Z</time>
      </trkpt>
      <trkpt lat="37.749020" lon="-119.807700">
        <ele>1913.789</ele>
        <time>2018-12-29T11:08:40Z</time>
      </trkpt>
      <trkpt lat="37.748870" lon="-119.807650">
        <ele>1912.273</ele>
        <time>2018-12-29T11:09:00Z</time>
      </trkpt>
      <trkpt lat="37.748760" lon="-119.807600">
        <ele>1911.389</ele>
        <time>2018-12-29T11:09:20Z</time>
      </trkpt>
      <trkpt lat="37.748640" lon="-119.807540">
        <ele>1909.496</ele>
        <time>2018-12-29T11:09:40Z</time>
      </trkpt>
      <trkpt lat="37.748520" lon="-119.807450">
        <ele>1908.930</ele>
        <time>2018-12-29T11:10:00Z</time>
      </trkpt>
      <trkpt lat="37.748460" lon="-119.807400">
        <ele>1909.386</ele>
        <time>2018-12-29T11:10:20Z</time>
      </trkpt>
      <trkpt lat="37.748250" lon="-119.807160">
        <ele>1916.660</ele>
        <time>2018-12-29T11:10:40Z</time>
      </trkpt>
      <trkpt lat="37.748160" lon="-119.807030">
        <ele>1920.426</ele>
        <time>2018-12-29T11:11:00Z</time>
      </trkpt>
      <trkpt lat="37.748090" lon="-119.806940">
        <ele>1922.408</ele>
        <time>2018-12-29T11:11:20Z</time>
      </trkpt>
      <trkpt lat="37.748020" lon="-119.806810">
        <ele>1924.921</ele>
        <time>2018-12-29T11:11:40Z</time>
      </trkpt>
      <trkpt lat="37.747970" lon="-119.806690">
        <ele>1926.169</ele>
        <time>2018-12-29T11:12:00Z</time>
      </trkpt>
      <trkpt lat="37.747940" lon="-119.806610">
        <ele>1926.834</ele>
        <time>2018-12-29T11:12:20Z</time>
      </trkpt>
      <trkpt lat="37.747880" lon="-119.806440">
        <ele>1927.273</ele>
        <time>2018-12-29T11:12:40Z</time>
      </trkpt>
      <trkpt lat="37.747820" lon="-119.806270">
        <ele>1926.997</ele>
        <time>2018-12-29T11:13:00Z</time>
      </trkpt>
      <trkpt lat="37.747690" lon="-119.805760">
        <ele>1921.553</ele>
        <time>2018-12-29T11:13:20Z</time>
      </trkpt>
      <trkpt lat="37.747420" lon="-119.804720">
        <ele>1910.950</ele>
        <time>2018-12-29T11:13:40Z</time>
      </trkpt>
      <trkpt lat="37.747340" lon="-119.804400">
        <ele>1908.254</ele>
        <time>2018-12-29T11:14:00Z</time>
      </trkpt>
      <trkpt lat="37.747330" lon="-119.804300">
        <ele>1908.637</ele>
        <time>2018-12-29T11:14:20Z</time>
      </trkpt>
      <trkpt lat="37.747320" lon="-119.804220">
        <ele>1908.449</ele>
        <time>2018-12-29T11:14:40Z</time>
      </trkpt>
      <trkpt lat="37.747310" lon="-119.804120">
        <ele>1908.313</ele>
        <time>2018-12-29T11:15:00Z</time>
      </trkpt>
      <trkpt lat="37.747300" lon="-119.804010">
        <ele>1908.208</ele>
        <time>2018-12-29T11:15:20Z</time>
      </trkpt>
      <trkpt lat="37.747290" lon="-119.803890">
        <ele>1908.696</ele>
        <time>2018-12-29T11:15:40Z</time>
      </trkpt>
      <trkpt lat="37.747290" lon="-119.803810">
        <ele>1908.964</ele>
        <time>2018-12-29T11:16:00Z</time>
      </trkpt>
      <trkpt lat="37.747300" lon="-119.803700">
        <ele>1909.269</ele>
        <time>2018-12-29T11:16:20Z</time>
      </trkpt>
      <trkpt lat="37.747370" lon="-119.803360">
        <ele>1907.758</ele>
        <time>2018-12-29T11:16:40Z</time>
      </trkpt>
      <trkpt lat="37.747430" lon="-119.803200">
        <ele>1907.272</ele>
        <time>2018-12-29T11:17:00Z</time>
      </trkpt>
      <trkpt lat="37.747480" lon="-119.803090">
        <ele>1907.568</ele>
        <time>2018-12-29T11:17:20Z</time>
      </trkpt>
      <trkpt lat="37.747530" lon="-119.802970">
        <ele>1907.645</ele>
        <time>2018-12-29T11:17:40Z</time>
      </trkpt>
      <trkpt lat="37.747590" lon="-119.802870">
        <ele>1907.859</ele>
        <time>2018-12-29T11:18:00Z</time>
      </trkpt>
      <trkpt lat="37.747640" lon="-119.802780">
        <ele>1907.929</ele>
        <time>2018-12-29T11:18:20Z</time>
      </trkpt>
      <trkpt lat="37.747690" lon="-119.802710">
        <ele>1908.400</ele>
        <time>2018-12-29T11:18:40Z</time>
      </trkpt>
      <trkpt lat="37.747750" lon="-119.802630">
        <ele>1908.920</ele>
        <time>2018-12-29T11:19:00Z</time>
      </trkpt>
      <trkpt lat="37.747880" lon="-119.802490">
        <ele>1909.808</ele>
        <time>2018-12-29T11:19:20Z</time>
      </trkpt>
      <trkpt lat="37.747980" lon="-119.802410">
        <ele>1910.375</ele>
        <time>2018-12-29T11:19:40Z</time>
      </trkpt>
      <trkpt lat="37.748090" lon="-119.802340">
        <ele>1910.573</ele>
        <time>2018-12-29T11:20:00Z</time>
      </trkpt>
      <trkpt lat="37.748180" lon="-119.802280">
        <ele>1910.548</ele>
        <time>2018-12-29T11:20:20Z</time>
      </trkpt>
      <trkpt lat="37.748240" lon="-119.802250">
        <ele>1909.597</ele>
        <time>2018-12-29T11:20:40Z</time>
      </trkpt>
      <trkpt lat="37.748320" lon="-119.802210">
        <ele>1907.891</ele>
        <time>2018-12-29T11:21:00Z</time>
      </trkpt>
      <trkpt lat="37.748420" lon="-119.802180">
        <ele>1906.177</ele>
        <time>2018-12-29T11:21:20Z</time>
      </trkpt>
      <trkpt lat="37.748530" lon="-119.802160">
        <ele>1904.454</ele>
        <time>2018-12-29T11:21:40Z</time>
      </trkpt>
      <trkpt lat="37.748620" lon="-119.802160">
        <ele>1903.138</ele>
        <time>2018-12-29T11:22:00Z</time>
      </trkpt>
      <trkpt lat="37.748720" lon="-119.802170">
        <ele>1901.889</ele>
        <time>2018-12-29T11:22:20Z</time>
      </trkpt>
      <trkpt lat="37.748840" lon="-119.802190">
        <ele>1901.306</ele>
        <time>2018-12-29T11:22:40Z</time>
      </trkpt>
      <trkpt lat="37.748960" lon="-119.802220">
        <ele>1901.326</ele>
        <time>2018-12-29T11:23:00Z</time>
      </trkpt>
      <trkpt lat="37.749060" lon="-119.802250">
        <ele>1901.408</ele>
        <time>2018-12-29T11:23:20Z</time>
      </trkpt>
      <trkpt lat="37.749260" lon="-119.802350">
        <ele>1902.471</ele>
        <time>2018-12-29T11:23:40Z</time>
      </trkpt>
      <trkpt lat="37.749730" lon="-119.802660">
        <ele>1903.089</ele>
        <time>2018-12-29T11:24:00Z</time>
      </trkpt>
      <trkpt lat="37.749970" lon="-119.802780">
        <ele>1902.654</ele>
        <time>2018-12-29T11:24:20Z</time>
      </trkpt>
      <trkpt lat="37.750160" lon="-119.802820">
        <ele>1901.433</ele>
        <time>2018-12-29T11:24:40Z</time>
      </trkpt>
      <trkpt lat="37.750380" lon="-119.802830">
        <ele>1899.187</ele>
        <time>2018-12-29T11:25:00Z</time>
      </trkpt>
      <trkpt lat="37.750540" lon="-119.802820">
        <ele>1898.333</ele>
        <time>2018-12-29T11:25:20Z</time>
      </trkpt>
      <trkpt lat="37.750630" lon="-119.802800">
        <ele>1897.840</ele>
        <time>2018-12-29T11:25:40Z</time>
      </trkpt>
      <trkpt lat="37.750690" lon="-119.802780">
        <ele>1897.444</ele>
        <time>2018-12-29T11:26:00Z</time>
      </trkpt>
      <trkpt lat="37.750840" lon="-119.802730">
        <ele>1896.681</ele>
        <time>2018-12-29T11:26:20Z</time>
      </trkpt>
      <trkpt lat="37.751000" lon="-119.802630">
        <ele>1894.961</ele>
        <time>2018-12-29T11:26:40Z</time>
      </trkpt>
      <trkpt lat="37.751040" lon="-119.802610">
        <ele>1894.517</ele>
        <time>2018-12-29T11:27:00Z</time>
      </trkpt>
      <trkpt lat="37.751090" lon="-119.802570">
        <ele>1893.908</ele>
        <time>2018-12-29T11:27:20Z</time>
      </trkpt>
      <trkpt lat="37.751160" lon="-119.802510">
        <ele>1892.871</ele>
        <time>2018-12-29T11:27:40Z</time>
      </trkpt>
      <trkpt lat="37.751230" lon="-119.802430">
        <ele>1891.579</ele>
        <time>2018-12-29T11:28:00Z</time>
      </trkpt>
      <trkpt lat="37.751280" lon="-119.802370">
        <ele>1890.354</ele>
        <time>2018-12-29T11:28:20Z</time>
      </trkpt>
      <trkpt lat="37.751350" lon="-119.802270">
        <ele>1888.943</ele>
        <time>2018-12-29T11:28:40Z</time>
      </trkpt>
      <trkpt lat="37.751410" lon="-119.802180">
        <ele>1887.867</ele>
        <time>2018-12-29T11:29:00Z</time>
      </trkpt>
      <trkpt lat="37.751480" lon="-119.802040">
        <ele>1886.583</ele>
        <time>2018-12-29T11:29:20Z</time>
      </trkpt>
      <trkpt lat="37.751540" lon="-119.801920">
        <ele>1885.510</ele>
        <time>2018-12-29T11:29:40Z</time>
      </trkpt>
      <trkpt lat="37.751590" lon="-119.801800">
        <ele>1884.714</ele>
        <time>2018-12-29T11:30:00Z</time>
      </trkpt>
      <trkpt lat="37.751610" lon="-119.801730">
        <ele>1884.279</ele>
        <time>2018-12-29T11:30:20Z</time>
      </trkpt>
      <trkpt lat="37.751630" lon="-119.801660">
        <ele>1883.705</ele>
        <time>2018-12-29T11:30:40Z</time>
      </trkpt>
      <trkpt lat="37.751660" lon="-119.801560">
        <ele>1883.025</ele>
        <time>2018-12-29T11:31:00Z</time>
      </trkpt>
      <trkpt lat="37.751680" lon="-119.801450">
        <ele>1882.408</ele>
        <time>2018-12-29T11:31:20Z</time>
      </trkpt>
      <trkpt lat="37.751690" lon="-119.801350">
        <ele>1881.760</ele>
        <time>2018-12-29T11:31:40Z</time>
      </trkpt>
      <trkpt lat="37.751690" lon="-119.801250">
        <ele>1881.128</ele>
        <time>2018-12-29T11:32:00Z</time>
      </trkpt>
      <trkpt lat="37.751700" lon="-119.801150">
        <ele>1880.463</ele>
        <time>2018-12-29T11:32:20Z</time>
      </trkpt>
      <trkpt lat="37.751660" lon="-119.800420">
        <ele>1876.782</ele>
        <time>2018-12-29T11:32:40Z</time>
      </trkpt>
      <trkpt lat="37.751650" lon="-119.800270">
        <ele>1876.476</ele>
        <time>2018-12-29T11:33:00Z</time>
      </trkpt>
      <trkpt lat="37.751640" lon="-119.800150">
        <ele>1876.152</ele>
        <time>2018-12-29T11:33:20Z</time>
      </trkpt>
      <trkpt lat="37.751640" lon="-119.799980">
        <ele>1875.859</ele>
        <time>2018-12-29T11:33:40Z</time>
      </trkpt>
      <trkpt lat="37.751640" lon="-119.799840">
        <ele>1875.733</ele>
        <time>2018-12-29T11:34:00Z</time>
      </trkpt>
      <trkpt lat="37.751650" lon="-119.799670">
        <ele>1875.659</ele>
        <time>2018-12-29T11:34:20Z</time>
      </trkpt>
      <trkpt lat="37.751670" lon="-119.799550">
        <ele>1875.603</ele>
        <time>2018-12-29T11:34:40Z</time>
      </trkpt>
      <trkpt lat="37.751690" lon="-119.799470">
        <ele>1875.723</ele>
        <time>2018-12-29T11:35:00Z</time>
      </trkpt>
      <trkpt lat="37.751750" lon="-119.799290">
        <ele>1875.808</ele>
        <time>2018-12-29T11:35:20Z</time>
      </trkpt>
      <trkpt lat="37.751800" lon="-119.799170">
        <ele>1875.988</ele>
        <time>2018-12-29T11:35:40Z</time>
      </trkpt>
      <trkpt lat="37.751850" lon="-119.799060">
        <ele>1876.086</ele>
        <time>2018-12-29T11:36:00Z</time>
      </trkpt>
      <trkpt lat="37.751920" lon="-119.798940">
        <ele>1876.471</ele>
        <time>2018-12-29T11:36:20Z</time>
      </trkpt>
      <trkpt lat="37.751980" lon="-119.798840">
        <ele>1876.760</ele>
        <time>2018-12-29T11:36:40Z</time>
      </trkpt>
      <trkpt lat="37.752220" lon="-119.798450">
        <ele>1876.194</ele>
        <time>2018-12-29T11:37:00Z</time>
      </trkpt>
      <trkpt lat="37.752300" lon="-119.798320">
        <ele>1876.110</ele>
        <time>2018-12-29T11:37:20Z</time>
      </trkpt>
      <trkpt lat="37.752360" lon="-119.798180">
        <ele>1875.967</ele>
        <time>2018-12-29T11:37:40Z</time>
      </trkpt>
      <trkpt lat="37.752360" lon="-119.798170">
        <ele>1875.971</ele>
        <time>2018-12-29T11:38:00Z</time>
      </trkpt>
      <trkpt lat="37.752390" lon="-119.798080">
        <ele>1876.137</ele>
        <time>2018-12-29T11:38:20Z</time>
      </trkpt>
      <trkpt lat="37.752450" lon="-119.797880">
        <ele>1876.549</ele>
        <time>2018-12-29T11:38:40Z</time>
      </trkpt>
      <trkpt lat="37.752490" lon="-119.797580">
        <ele>1876.613</ele>
        <time>2018-12-29T11:39:00Z</time>
      </trkpt>
      <trkpt lat="37.752495" lon="-119.797577">
        <ele>1876.608</ele>
        <time>2018-12-29T11:39:20Z</time>
      </trkpt>
      <trkpt lat="37.752500" lon="-119.797370">
        <ele>1876.596</ele>
        <time>2018-12-29T11:39:40Z</time>
      </trkpt>
      <trkpt lat="37.752500" lon="-119.797080">
        <ele>1875.834</ele>
        <time>2018-12-29T11:40:00Z</time>
      </trkpt>
      <trkpt lat="37.752490" lon="-119.796930">
        <ele>1875.449</ele>
        <time>2018-12-29T11:40:20Z</time>
      </trkpt>
      <trkpt lat="37.752480" lon="-119.796880">
        <ele>1875.268</ele>
        <time>2018-12-29T11:40:40Z</time>
      </trkpt>
      <trkpt lat="37.752460" lon="-119.796720">
        <ele>1875.092</ele>
        <time>2018-12-29T11:41:00Z</time>
      </trkpt>
      <trkpt lat="37.752440" lon="-119.796630">
        <ele>1874.918</ele>
        <time>2018-12-29T11:41:20Z</time>
      </trkpt>
      <trkpt lat="37.752430" lon="-119.796560">
        <ele>1874.985</ele>
        <time>2018-12-29T11:41:40Z</time>
      </trkpt>
      <trkpt lat="37.752410" lon="-119.796490">
        <ele>1875.029</ele>
        <time>2018-12-29T11:42:00Z</time>
      </trkpt>
      <trkpt lat="37.752380" lon="-119.796400">
        <ele>1875.182</ele>
        <time>2018-12-29T11:42:20Z</time>
      </trkpt>
      <trkpt lat="37.752377" lon="-119.796401">
        <ele>1875.143</ele>
        <time>2018-12-29T11:42:40Z</time>
      </trkpt>
      <trkpt lat="37.752340" lon="-119.796300">
        <ele>1875.417</ele>
        <time>2018-12-29T11:43:00Z</time>
      </trkpt>
      <trkpt lat="37.752280" lon="-119.796180">
        <ele>1875.708</ele>
        <time>2018-12-29T11:43:20Z</time>
      </trkpt>
      <trkpt lat="37.752140" lon="-119.795930">
        <ele>1875.611</ele>
        <time>2018-12-29T11:43:40Z</time>
      </trkpt>
      <trkpt lat="37.751740" lon="-119.795300">
        <ele>1876.729</ele>
        <time>2018-12-29T11:44:00Z</time>
      </trkpt>
      <trkpt lat="37.751290" lon="-119.794480">
        <ele>1878.444</ele>
        <time>2018-12-29T11:44:20Z</time>
      </trkpt>
      <trkpt lat="37.751070" lon="-119.794110">
        <ele>1878.423</ele>
        <time>2018-12-29T11:44:40Z</time>
      </trkpt>
      <trkpt lat="37.750830" lon="-119.793680">
        <ele>1878.757</ele>
        <time>2018-12-29T11:45:00Z</time>
      </trkpt>
      <trkpt lat="37.750570" lon="-119.793190">
        <ele>1879.433</ele>
        <time>2018-12-29T11:45:20Z</time>
      </trkpt>
      <trkpt lat="37.750450" lon="-119.792880">
        <ele>1880.860</ele>
        <time>2018-12-29T11:45:40Z</time>
      </trkpt>
      <trkpt lat="37.750360" lon="-119.792560">
        <ele>1880.654</ele>
        <time>2018-12-29T11:46:00Z</time>
      </trkpt>
      <trkpt lat="37.750290" lon="-119.792220">
        <ele>1878.192</ele>
        <time>2018-12-29T11:46:20Z</time>
      </trkpt>
      <trkpt lat="37.750280" lon="-119.791700">
        <ele>1875.773</ele>
        <time>2018-12-29T11:46:40Z</time>
      </trkpt>
      <trkpt lat="37.750310" lon="-119.791300">
        <ele>1873.420</ele>
        <time>2018-12-29T11:47:00Z</time>
      </trkpt>
      <trkpt lat="37.750400" lon="-119.790900">
        <ele>1872.708</ele>
        <time>2018-12-29T11:47:20Z</time>
      </trkpt>
      <trkpt lat="37.750560" lon="-119.790370">
        <ele>1874.492</ele>
        <time>2018-12-29T11:47:40Z</time>
      </trkpt>
      <trkpt lat="37.750950" lon="-119.789270">
        <ele>1875.370</ele>
        <time>2018-12-29T11:48:00Z</time>
      </trkpt>
      <trkpt lat="37.751110" lon="-119.788810">
        <ele>1873.785</ele>
        <time>2018-12-29T11:48:20Z</time>
      </trkpt>
      <trkpt lat="37.751760" lon="-119.786940">
        <ele>1857.924</ele>
        <time>2018-12-29T11:48:40Z</time>
      </trkpt>
      <trkpt lat="37.751800" lon="-119.786800">
        <ele>1857.468</ele>
        <time>2018-12-29T11:49:00Z</time>
      </trkpt>
      <trkpt lat="37.751870" lon="-119.786480">
        <ele>1858.284</ele>
        <time>2018-12-29T11:49:20Z</time>
      </trkpt>
      <trkpt lat="37.751890" lon="-119.786360">
        <ele>1858.421</ele>
        <time>2018-12-29T11:49:40Z</time>
      </trkpt>
      <trkpt lat="37.751910" lon="-119.786100">
        <ele>1858.855</ele>
        <time>2018-12-29T11:50:00Z</time>
      </trkpt>
      <trkpt lat="37.751910" lon="-119.785770">
        <ele>1859.019</ele>
        <time>2018-12-29T11:50:20Z</time>
      </trkpt>
      <trkpt lat="37.751880" lon="-119.785480">
        <ele>1858.609</ele>
        <time>2018-12-29T11:50:40Z</time>
      </trkpt>
      <trkpt lat="37.751810" lon="-119.785170">
        <ele>1857.219</ele>
        <time>2018-12-29T11:51:00Z</time>
      </trkpt>
      <trkpt lat="37.751690" lon="-119.784810">
        <ele>1854.108</ele>
        <time>2018-12-29T11:51:20Z</time>
      </trkpt>
      <trkpt lat="37.751600" lon="-119.784610">
        <ele>1852.094</ele>
        <time>2018-12-29T11:51:40Z</time>
      </trkpt>
      <trkpt lat="37.751520" lon="-119.784490">
        <ele>1851.652</ele>
        <time>2018-12-29T11:52:00Z</time>
      </trkpt>
      <trkpt lat="37.751390" lon="-119.784290">
        <ele>1853.787</ele>
        <time>2018-12-29T11:52:20Z</time>
      </trkpt>
      <trkpt lat="37.751250" lon="-119.784120">
        <ele>1855.966</ele>
        <time>2018-12-29T11:52:40Z</time>
      </trkpt>
      <trkpt lat="37.750760" lon="-119.783610">
        <ele>1859.930</ele>
        <time>2018-12-29T11:53:00Z</time>
      </trkpt>
      <trkpt lat="37.750480" lon="-119.783310">
        <ele>1857.596</ele>
        <time>2018-12-29T11:53:20Z</time>
      </trkpt>
      <trkpt lat="37.750330" lon="-119.783130">
        <ele>1855.793</ele>
        <time>2018-12-29T11:53:40Z</time>
      </trkpt>
      <trkpt lat="37.750210" lon="-119.782900">
        <ele>1853.637</ele>
        <time>2018-12-29T11:54:00Z</time>
      </trkpt>
      <trkpt lat="37.750100" lon="-119.782630">
        <ele>1852.095</ele>
        <time>2018-12-29T11:54:20Z</time>
      </trkpt>
      <trkpt lat="37.749940" lon="-119.782330">
        <ele>1849.349</ele>
        <time>2018-12-29T11:54:40Z</time>
      </trkpt>
      <trkpt lat="37.749850" lon="-119.782200">
        <ele>1848.023</ele>
        <time>2018-12-29T11:55:00Z</time>
      </trkpt>
      <trkpt lat="37.749780" lon="-119.782120">
        <ele>1847.008</ele>
        <time>2018-12-29T11:55:20Z</time>
      </trkpt>
      <trkpt lat="37.749700" lon="-119.782060">
        <ele>1845.862</ele>
        <time>2018-12-29T11:55:40Z</time>
      </trkpt>
      <trkpt lat="37.749540" lon="-119.781970">
        <ele>1843.740</ele>
        <time>2018-12-29T11:56:00Z</time>
      </trkpt>
      <trkpt lat="37.749460" lon="-119.781920">
        <ele>1843.075</ele>
        <time>2018-12-29T11:56:20Z</time>
      </trkpt>
      <trkpt lat="37.749370" lon="-119.781890">
        <ele>1842.134</ele>
        <time>2018-12-29T11:56:40Z</time>
      </trkpt>
      <trkpt lat="37.749270" lon="-119.781870">
        <ele>1841.348</ele>
        <time>2018-12-29T11:57:00Z</time>
      </trkpt>
      <trkpt lat="37.749070" lon="-119.781860">
        <ele>1840.484</ele>
        <time>2018-12-29T11:57:20Z</time>
      </trkpt>
      <trkpt lat="37.748810" lon="-119.781800">
        <ele>1839.511</ele>
        <time>2018-12-29T11:57:40Z</time>
      </trkpt>
      <trkpt lat="37.748500" lon="-119.781630">
        <ele>1837.915</ele>
        <time>2018-12-29T11:58:00Z</time>
      </trkpt>
      <trkpt lat="37.748360" lon="-119.781490">
        <ele>1837.654</ele>
        <time>2018-12-29T11:58:20Z</time>
      </trkpt>
      <trkpt lat="37.748220" lon="-119.781300">
        <ele>1837.556</ele>
        <time>2018-12-29T11:58:40Z</time>
      </trkpt>
      <trkpt lat="37.748120" lon="-119.781070">
        <ele>1837.811</ele>
        <time>2018-12-29T11:59:00Z</time>
      </trkpt>
      <trkpt lat="37.748070" lon="-119.780920">
        <ele>1837.908</ele>
        <time>2018-12-29T11:59:20Z</time>
      </trkpt>
      <trkpt lat="37.747980" lon="-119.780560">
        <ele>1838.278</ele>
        <time>2018-12-29T11:59:40Z</time>
      </trkpt>
      <trkpt lat="37.747940" lon="-119.780290">
        <ele>1838.556</ele>
        <time>2018-12-29T12:00:00Z</time>
      </trkpt>
      <trkpt lat="37.747880" lon="-119.780050">
        <ele>1837.761</ele>
        <time>2018-12-29T12:00:20Z</time>
      </trkpt>
      <trkpt lat="37.747810" lon="-119.779840">
        <ele>1835.730</ele>
        <time>2018-12-29T12:00:40Z</time>
      </trkpt>
      <trkpt lat="37.747720" lon="-119.779680">
        <ele>1833.034</ele>
        <time>2018-12-29T12:01:00Z</time>
      </trkpt>
      <trkpt lat="37.747580" lon="-119.779530">
        <ele>1833.220</ele>
        <time>2018-12-29T12:01:20Z</time>
      </trkpt>
      <trkpt lat="37.747430" lon="-119.779400">
        <ele>1832.957</ele>
        <time>2018-12-29T12:01:40Z</time>
      </trkpt>
      <trkpt lat="37.747160" lon="-119.779210">
        <ele>1832.681</ele>
        <time>2018-12-29T12:02:00Z</time>
      </trkpt>
      <trkpt lat="37.746980" lon="-119.779080">
        <ele>1831.784</ele>
        <time>2018-12-29T12:02:20Z</time>
      </trkpt>
      <trkpt lat="37.746860" lon="-119.778980">
        <ele>1831.107</ele>
        <time>2018-12-29T12:02:40Z</time>
      </trkpt>
      <trkpt lat="37.746720" lon="-119.778810">
        <ele>1829.517</ele>
        <time>2018-12-29T12:03:00Z</time>
      </trkpt>
      <trkpt lat="37.746610" lon="-119.778630">
        <ele>1829.308</ele>
        <time>2018-12-29T12:03:20Z</time>
      </trkpt>
      <trkpt lat="37.746520" lon="-119.778390">
        <ele>1827.671</ele>
        <time>2018-12-29T12:03:40Z</time>
      </trkpt>
      <trkpt lat="37.746460" lon="-119.778160">
        <ele>1823.299</ele>
        <time>2018-12-29T12:04:00Z</time>
      </trkpt>
      <trkpt lat="37.746420" lon="-119.777560">
        <ele>1823.714</ele>
        <time>2018-12-29T12:04:20Z</time>
      </trkpt>
      <trkpt lat="37.746380" lon="-119.777260">
        <ele>1823.393</ele>
        <time>2018-12-29T12:04:40Z</time>
      </trkpt>
      <trkpt lat="37.746290" lon="-119.777000">
        <ele>1822.387</ele>
        <time>2018-12-29T12:05:00Z</time>
      </trkpt>
      <trkpt lat="37.746220" lon="-119.776880">
        <ele>1821.583</ele>
        <time>2018-12-29T12:05:20Z</time>
      </trkpt>
      <trkpt lat="37.746100" lon="-119.776730">
        <ele>1820.680</ele>
        <time>2018-12-29T12:05:40Z</time>
      </trkpt>
      <trkpt lat="37.746000" lon="-119.776640">
        <ele>1820.424</ele>
        <time>2018-12-29T12:06:00Z</time>
      </trkpt>
      <trkpt lat="37.745840" lon="-119.776550">
        <ele>1820.411</ele>
        <time>2018-12-29T12:06:20Z</time>
      </trkpt>
      <trkpt lat="37.745770" lon="-119.776510">
        <ele>1820.521</ele>
        <time>2018-12-29T12:06:40Z</time>
      </trkpt>
      <trkpt lat="37.745670" lon="-119.776480">
        <ele>1820.203</ele>
        <time>2018-12-29T12:07:00Z</time>
      </trkpt>
      <trkpt lat="37.745300" lon="-119.776420">
        <ele>1819.308</ele>
        <time>2018-12-29T12:07:20Z</time>
      </trkpt>
      <trkpt lat="37.745080" lon="-119.776390">
        <ele>1818.294</ele>
        <time>2018-12-29T12:07:40Z</time>
      </trkpt>
      <trkpt lat="37.744850" lon="-119.776320">
        <ele>1816.592</ele>
        <time>2018-12-29T12:08:00Z</time>
      </trkpt>
      <trkpt lat="37.744630" lon="-119.776210">
        <ele>1812.957</ele>
        <time>2018-12-29T12:08:20Z</time>
      </trkpt>
      <trkpt lat="37.744530" lon="-119.776150">
        <ele>1810.466</ele>
        <time>2018-12-29T12:08:40Z</time>
      </trkpt>
      <trkpt lat="37.744070" lon="-119.775710">
        <ele>1806.170</ele>
        <time>2018-12-29T12:09:00Z</time>
      </trkpt>
      <trkpt lat="37.743900" lon="-119.775560">
        <ele>1805.776</ele>
        <time>2018-12-29T12:09:20Z</time>
      </trkpt>
      <trkpt lat="37.743690" lon="-119.775420">
        <ele>1805.253</ele>
        <time>2018-12-29T12:09:40Z</time>
      </trkpt>
      <trkpt lat="37.743450" lon="-119.775300">
        <ele>1805.287</ele>
        <time>2018-12-29T12:10:00Z</time>
      </trkpt>
      <trkpt lat="37.742720" lon="-119.774980">
        <ele>1805.023</ele>
        <time>2018-12-29T12:10:20Z</time>
      </trkpt>
      <trkpt lat="37.742390" lon="-119.774810">
        <ele>1804.483</ele>
        <time>2018-12-29T12:10:40Z</time>
      </trkpt>
      <trkpt lat="37.741840" lon="-119.774430">
        <ele>1803.911</ele>
        <time>2018-12-29T12:11:00Z</time>
      </trkpt>
      <trkpt lat="37.740930" lon="-119.773820">
        <ele>1800.908</ele>
        <time>2018-12-29T12:11:20Z</time>
      </trkpt>
      <trkpt lat="37.740650" lon="-119.773630">
        <ele>1795.175</ele>
        <time>2018-12-29T12:11:40Z</time>
      </trkpt>
      <trkpt lat="37.740220" lon="-119.773340">
        <ele>1792.383</ele>
        <time>2018-12-29T12:12:00Z</time>
      </trkpt>
      <trkpt lat="37.739990" lon="-119.773180">
        <ele>1792.148</ele>
        <time>2018-12-29T12:12:20Z</time>
      </trkpt>
      <trkpt lat="37.739760" lon="-119.772960">
        <ele>1792.087</ele>
        <time>2018-12-29T12:12:40Z</time>
      </trkpt>
      <trkpt lat="37.739640" lon="-119.772790">
        <ele>1791.891</ele>
        <time>2018-12-29T12:13:00Z</time>
      </trkpt>
      <trkpt lat="37.739550" lon="-119.772600">
        <ele>1791.957</ele>
        <time>2018-12-29T12:13:20Z</time>
      </trkpt>
      <trkpt lat="37.739470" lon="-119.772370">
        <ele>1791.964</ele>
        <time>2018-12-29T12:13:40Z</time>
      </trkpt>
      <trkpt lat="37.739420" lon="-119.772070">
        <ele>1792.298</ele>
        <time>2018-12-29T12:14:00Z</time>
      </trkpt>
      <trkpt lat="37.739410" lon="-119.771610">
        <ele>1793.227</ele>
        <time>2018-12-29T12:14:20Z</time>
      </trkpt>
      <trkpt lat="37.739390" lon="-119.770570">
        <ele>1791.468</ele>
        <time>2018-12-29T12:14:40Z</time>
      </trkpt>
      <trkpt lat="37.739360" lon="-119.769200">
        <ele>1791.514</ele>
        <time>2018-12-29T12:15:00Z</time>
      </trkpt>
      <trkpt lat="37.739370" lon="-119.768920">
        <ele>1790.908</ele>
        <time>2018-12-29T12:15:20Z</time>
      </trkpt>
      <trkpt lat="37.739440" lon="-119.768650">
        <ele>1791.415</ele>
        <time>2018-12-29T12:15:40Z</time>
      </trkpt>
      <trkpt lat="37.739490" lon="-119.768510">
        <ele>1791.853</ele>
        <time>2018-12-29T12:16:00Z</time>
      </trkpt>
      <trkpt lat="37.739610" lon="-119.768090">
        <ele>1791.288</ele>
        <time>2018-12-29T12:16:20Z</time>
      </trkpt>
      <trkpt lat="37.739640" lon="-119.767950">
        <ele>1790.247</ele>
        <time>2018-12-29T12:16:40Z</time>
      </trkpt>
      <trkpt lat="37.739650" lon="-119.767770">
        <ele>1786.511</ele>
        <time>2018-12-29T12:17:00Z</time>
      </trkpt>
      <trkpt lat="37.739660" lon="-119.767560">
        <ele>1782.657</ele>
        <time>2018-12-29T12:17:20Z</time>
      </trkpt>
      <trkpt lat="37.739640" lon="-119.767280">
        <ele>1779.674</ele>
        <time>2018-12-29T12:17:40Z</time>
      </trkpt>
      <trkpt lat="37.739620" lon="-119.766860">
        <ele>1778.018</ele>
        <time>2018-12-29T12:18:00Z</time>
      </trkpt>
      <trkpt lat="37.739570" lon="-119.766300">
        <ele>1777.236</ele>
        <time>2018-12-29T12:18:20Z</time>
      </trkpt>
      <trkpt lat="37.739570" lon="-119.765860">
        <ele>1777.317</ele>
        <time>2018-12-29T12:18:40Z</time>
      </trkpt>
      <trkpt lat="37.739630" lon="-119.765500">
        <ele>1777.418</ele>
        <time>2018-12-29T12:19:00Z</time>
      </trkpt>
      <trkpt lat="37.739720" lon="-119.765230">
        <ele>1776.608</ele>
        <time>2018-12-29T12:19:20Z</time>
      </trkpt>
      <trkpt lat="37.739880" lon="-119.764920">
        <ele>1775.596</ele>
        <time>2018-12-29T12:19:40Z</time>
      </trkpt>
      <trkpt lat="37.740080" lon="-119.764660">
        <ele>1775.574</ele>
        <time>2018-12-29T12:20:00Z</time>
      </trkpt>
      <trkpt lat="37.740300" lon="-119.764480">
        <ele>1776.089</ele>
        <time>2018-12-29T12:20:20Z</time>
      </trkpt>
      <trkpt lat="37.740680" lon="-119.764290">
        <ele>1775.598</ele>
        <time>2018-12-29T12:20:40Z</time>
      </trkpt>
      <trkpt lat="37.741210" lon="-119.764150">
        <ele>1767.052</ele>
        <time>2018-12-29T12:21:00Z</time>
      </trkpt>
      <trkpt lat="37.741390" lon="-119.764030">
        <ele>1764.398</ele>
        <time>2018-12-29T12:21:20Z</time>
      </trkpt>
      <trkpt lat="37.741570" lon="-119.763880">
        <ele>1761.755</ele>
        <time>2018-12-29T12:21:40Z</time>
      </trkpt>
      <trkpt lat="37.741720" lon="-119.763710">
        <ele>1760.269</ele>
        <time>2018-12-29T12:22:00Z</time>
      </trkpt>
      <trkpt lat="37.741890" lon="-119.763430">
        <ele>1758.439</ele>
        <time>2018-12-29T12:22:20Z</time>
      </trkpt>
      <trkpt lat="37.742320" lon="-119.762680">
        <ele>1753.401</ele>
        <time>2018-12-29T12:22:40Z</time>
      </trkpt>
      <trkpt lat="37.742690" lon="-119.761970">
        <ele>1747.121</ele>
        <time>2018-12-29T12:23:00Z</time>
      </trkpt>
      <trkpt lat="37.742840" lon="-119.761620">
        <ele>1754.008</ele>
        <time>2018-12-29T12:23:20Z</time>
      </trkpt>
      <trkpt lat="37.742970" lon="-119.761200">
        <ele>1756.216</ele>
        <time>2018-12-29T12:23:40Z</time>
      </trkpt>
      <trkpt lat="37.743200" lon="-119.760400">
        <ele>1747.614</ele>
        <time>2018-12-29T12:24:00Z</time>
      </trkpt>
      <trkpt lat="37.743630" lon="-119.759360">
        <ele>1739.419</ele>
        <time>2018-12-29T12:24:20Z</time>
      </trkpt>
      <trkpt lat="37.743740" lon="-119.758990">
        <ele>1733.848</ele>
        <time>2018-12-29T12:24:40Z</time>
      </trkpt>
      <trkpt lat="37.743780" lon="-119.758730">
        <ele>1736.042</ele>
        <time>2018-12-29T12:25:00Z</time>
      </trkpt>
      <trkpt lat="37.743780" lon="-119.758430">
        <ele>1736.358</ele>
        <time>2018-12-29T12:25:20Z</time>
      </trkpt>
      <trkpt lat="37.743760" lon="-119.758240">
        <ele>1734.985</ele>
        <time>2018-12-29T12:25:40Z</time>
      </trkpt>
      <trkpt lat="37.743740" lon="-119.758140">
        <ele>1734.099</ele>
        <time>2018-12-29T12:26:00Z</time>
      </trkpt>
      <trkpt lat="37.743690" lon="-119.757930">
        <ele>1730.788</ele>
        <time>2018-12-29T12:26:20Z</time>
      </trkpt>
      <trkpt lat="37.743630" lon="-119.757750">
        <ele>1727.124</ele>
        <time>2018-12-29T12:26:40Z</time>
      </trkpt>
      <trkpt lat="37.743580" lon="-119.757630">
        <ele>1724.726</ele>
        <time>2018-12-29T12:27:00Z</time>
      </trkpt>
      <trkpt lat="37.743510" lon="-119.757510">
        <ele>1724.508</ele>
        <time>2018-12-29T12:27:20Z</time>
      </trkpt>
      <trkpt lat="37.743370" lon="-119.757300">
        <ele>1723.861</ele>
        <time>2018-12-29T12:27:40Z</time>
      </trkpt>
      <trkpt lat="37.743190" lon="-119.757120">
        <ele>1723.799</ele>
        <time>2018-12-29T12:28:00Z</time>
      </trkpt>
      <trkpt lat="37.743090" lon="-119.757050">
        <ele>1723.754</ele>
        <time>2018-12-29T12:28:20Z</time>
      </trkpt>
      <trkpt lat="37.742930" lon="-119.756950">
        <ele>1723.793</ele>
        <time>2018-12-29T12:28:40Z</time>
      </trkpt>
      <trkpt lat="37.742790" lon="-119.756890">
        <ele>1721.587</ele>
        <time>2018-12-29T12:29:00Z</time>
      </trkpt>
      <trkpt lat="37.742660" lon="-119.756850">
        <ele>1718.913</ele>
        <time>2018-12-29T12:29:20Z</time>
      </trkpt>
      <trkpt lat="37.742570" lon="-119.756830">
        <ele>1718.380</ele>
        <time>2018-12-29T12:29:40Z</time>
      </trkpt>
      <trkpt lat="37.742340" lon="-119.756830">
        <ele>1716.874</ele>
        <time>2018-12-29T12:30:00Z</time>
      </trkpt>
      <trkpt lat="37.742130" lon="-119.756870">
        <ele>1718.191</ele>
        <time>2018-12-29T12:30:20Z</time>
      </trkpt>
      <trkpt lat="37.741950" lon="-119.756940">
        <ele>1718.681</ele>
        <time>2018-12-29T12:30:40Z</time>
      </trkpt>
      <trkpt lat="37.741560" lon="-119.757200">
        <ele>1718.519</ele>
        <time>2018-12-29T12:31:00Z</time>
      </trkpt>
      <trkpt lat="37.741340" lon="-119.757480">
        <ele>1717.108</ele>
        <time>2018-12-29T12:31:20Z</time>
      </trkpt>
      <trkpt lat="37.740940" lon="-119.758030">
        <ele>1713.352</ele>
        <time>2018-12-29T12:31:40Z</time>
      </trkpt>
      <trkpt lat="37.740470" lon="-119.758580">
        <ele>1701.770</ele>
        <time>2018-12-29T12:32:00Z</time>
      </trkpt>
      <trkpt lat="37.740180" lon="-119.758880">
        <ele>1696.455</ele>
        <time>2018-12-29T12:32:20Z</time>
      </trkpt>
      <trkpt lat="37.740010" lon="-119.759000">
        <ele>1695.794</ele>
        <time>2018-12-29T12:32:40Z</time>
      </trkpt>
      <trkpt lat="37.739790" lon="-119.759100">
        <ele>1694.658</ele>
        <time>2018-12-29T12:33:00Z</time>
      </trkpt>
      <trkpt lat="37.739630" lon="-119.759140">
        <ele>1695.024</ele>
        <time>2018-12-29T12:33:20Z</time>
      </trkpt>
      <trkpt lat="37.739460" lon="-119.759160">
        <ele>1694.871</ele>
        <time>2018-12-29T12:33:40Z</time>
      </trkpt>
      <trkpt lat="37.739310" lon="-119.759140">
        <ele>1694.915</ele>
        <time>2018-12-29T12:34:00Z</time>
      </trkpt>
      <trkpt lat="37.739120" lon="-119.759100">
        <ele>1693.738</ele>
        <time>2018-12-29T12:34:20Z</time>
      </trkpt>
      <trkpt lat="37.738950" lon="-119.759010">
        <ele>1693.170</ele>
        <time>2018-12-29T12:34:40Z</time>
      </trkpt>
      <trkpt lat="37.738770" lon="-119.758900">
        <ele>1691.217</ele>
        <time>2018-12-29T12:35:00Z</time>
      </trkpt>
      <trkpt lat="37.738500" lon="-119.758640">
        <ele>1684.808</ele>
        <time>2018-12-29T12:35:20Z</time>
      </trkpt>
      <trkpt lat="37.738380" lon="-119.758530">
        <ele>1685.326</ele>
        <time>2018-12-29T12:35:40Z</time>
      </trkpt>
      <trkpt lat="37.738240" lon="-119.758450">
        <ele>1684.934</ele>
        <time>2018-12-29T12:36:00Z</time>
      </trkpt>
      <trkpt lat="37.738120" lon="-119.758420">
        <ele>1685.559</ele>
        <time>2018-12-29T12:36:20Z</time>
      </trkpt>
      <trkpt lat="37.738020" lon="-119.758400">
        <ele>1687.088</ele>
        <time>2018-12-29T12:36:40Z</time>
      </trkpt>
      <trkpt lat="37.737910" lon="-119.758420">
        <ele>1687.712</ele>
        <time>2018-12-29T12:37:00Z</time>
      </trkpt>
      <trkpt lat="37.737800" lon="-119.758440">
        <ele>1689.348</ele>
        <time>2018-12-29T12:37:20Z</time>
      </trkpt>
      <trkpt lat="37.737680" lon="-119.758490">
        <ele>1690.335</ele>
        <time>2018-12-29T12:37:40Z</time>
      </trkpt>
      <trkpt lat="37.737510" lon="-119.758590">
        <ele>1690.959</ele>
        <time>2018-12-29T12:38:00Z</time>
      </trkpt>
      <trkpt lat="37.737350" lon="-119.758720">
        <ele>1690.058</ele>
        <time>2018-12-29T12:38:20Z</time>
      </trkpt>
      <trkpt lat="37.737160" lon="-119.758830">
        <ele>1688.452</ele>
        <time>2018-12-29T12:38:40Z</time>
      </trkpt>
      <trkpt lat="37.737050" lon="-119.758880">
        <ele>1687.617</ele>
        <time>2018-12-29T12:39:00Z</time>
      </trkpt>
      <trkpt lat="37.736930" lon="-119.758930">
        <ele>1686.408</ele>
        <time>2018-12-29T12:39:20Z</time>
      </trkpt>
      <trkpt lat="37.736800" lon="-119.758970">
        <ele>1685.528</ele>
        <time>2018-12-29T12:39:40Z</time>
      </trkpt>
      <trkpt lat="37.736540" lon="-119.758970">
        <ele>1685.016</ele>
        <time>2018-12-29T12:40:00Z</time>
      </trkpt>
      <trkpt lat="37.736420" lon="-119.758960">
        <ele>1684.591</ele>
        <time>2018-12-29T12:40:20Z</time>
      </trkpt>
      <trkpt lat="37.736270" lon="-119.758950">
        <ele>1683.920</ele>
        <time>2018-12-29T12:40:40Z</time>
      </trkpt>
      <trkpt lat="37.736110" lon="-119.758920">
        <ele>1683.944</ele>
        <time>2018-12-29T12:41:00Z</time>
      </trkpt>
      <trkpt lat="37.735980" lon="-119.758920">
        <ele>1683.140</ele>
        <time>2018-12-29T12:41:20Z</time>
      </trkpt>
      <trkpt lat="37.735800" lon="-119.758930">
        <ele>1682.447</ele>
        <time>2018-12-29T12:41:40Z</time>
      </trkpt>
      <trkpt lat="37.735570" lon="-119.759010">
        <ele>1680.711</ele>
        <time>2018-12-29T12:42:00Z</time>
      </trkpt>
      <trkpt lat="37.735310" lon="-119.759140">
        <ele>1678.315</ele>
        <time>2018-12-29T12:42:20Z</time>
      </trkpt>
      <trkpt lat="37.734890" lon="-119.759360">
        <ele>1674.665</ele>
        <time>2018-12-29T12:42:40Z</time>
      </trkpt>
      <trkpt lat="37.734260" lon="-119.759640">
        <ele>1666.111</ele>
        <time>2018-12-29T12:43:00Z</time>
      </trkpt>
      <trkpt lat="37.734090" lon="-119.759730">
        <ele>1665.808</ele>
        <time>2018-12-29T12:43:20Z</time>
      </trkpt>
      <trkpt lat="37.733840" lon="-119.759930">
        <ele>1665.184</ele>
        <time>2018-12-29T12:43:40Z</time>
      </trkpt>
      <trkpt lat="37.733650" lon="-119.760170">
        <ele>1664.532</ele>
        <time>2018-12-29T12:44:00Z</time>
      </trkpt>
      <trkpt lat="37.733560" lon="-119.760310">
        <ele>1663.477</ele>
        <time>2018-12-29T12:44:20Z</time>
      </trkpt>
      <trkpt lat="37.733430" lon="-119.760470">
        <ele>1662.976</ele>
        <time>2018-12-29T12:44:40Z</time>
      </trkpt>
      <trkpt lat="37.733280" lon="-119.760600">
        <ele>1662.960</ele>
        <time>2018-12-29T12:45:00Z</time>
      </trkpt>
      <trkpt lat="37.733150" lon="-119.760680">
        <ele>1663.436</ele>
        <time>2018-12-29T12:45:20Z</time>
      </trkpt>
      <trkpt lat="37.733030" lon="-119.760730">
        <ele>1662.843</ele>
        <time>2018-12-29T12:45:40Z</time>
      </trkpt>
      <trkpt lat="37.732830" lon="-119.760740">
        <ele>1661.677</ele>
        <time>2018-12-29T12:46:00Z</time>
      </trkpt>
      <trkpt lat="37.732660" lon="-119.760710">
        <ele>1659.021</ele>
        <time>2018-12-29T12:46:20Z</time>
      </trkpt>
      <trkpt lat="37.732420" lon="-119.760590">
        <ele>1656.541</ele>
        <time>2018-12-29T12:46:40Z</time>
      </trkpt>
      <trkpt lat="37.732300" lon="-119.760500">
        <ele>1655.105</ele>
        <time>2018-12-29T12:47:00Z</time>
      </trkpt>
      <trkpt lat="37.732230" lon="-119.760410">
        <ele>1654.308</ele>
        <time>2018-12-29T12:47:20Z</time>
      </trkpt>
      <trkpt lat="37.732110" lon="-119.760230">
        <ele>1653.065</ele>
        <time>2018-12-29T12:47:40Z</time>
      </trkpt>
      <trkpt lat="37.732040" lon="-119.760050">
        <ele>1652.723</ele>
        <time>2018-12-29T12:48:00Z</time>
      </trkpt>
      <trkpt lat="37.732000" lon="-119.759850">
        <ele>1653.568</ele>
        <time>2018-12-29T12:48:20Z</time>
      </trkpt>
      <trkpt lat="37.731970" lon="-119.759640">
        <ele>1653.637</ele>
        <time>2018-12-29T12:48:40Z</time>
      </trkpt>
      <trkpt lat="37.731990" lon="-119.759460">
        <ele>1654.441</ele>
        <time>2018-12-29T12:49:00Z</time>
      </trkpt>
      <trkpt lat="37.732010" lon="-119.759330">
        <ele>1655.037</ele>
        <time>2018-12-29T12:49:20Z</time>
      </trkpt>
      <trkpt lat="37.732080" lon="-119.759140">
        <ele>1655.824</ele>
        <time>2018-12-29T12:49:40Z</time>
      </trkpt>
      <trkpt lat="37.732190" lon="-119.758880">
        <ele>1658.018</ele>
        <time>2018-12-29T12:50:00Z</time>
      </trkpt>
      <trkpt lat="37.732380" lon="-119.758400">
        <ele>1655.241</ele>
        <time>2018-12-29T12:50:20Z</time>
      </trkpt>
      <trkpt lat="37.732610" lon="-119.757690">
        <ele>1646.781</ele>
        <time>2018-12-29T12:50:40Z</time>
      </trkpt>
      <trkpt lat="37.732670" lon="-119.757440">
        <ele>1644.609</ele>
        <time>2018-12-29T12:51:00Z</time>
      </trkpt>
      <trkpt lat="37.732700" lon="-119.757190">
        <ele>1641.608</ele>
        <time>2018-12-29T12:51:20Z</time>
      </trkpt>
      <trkpt lat="37.732720" lon="-119.757000">
        <ele>1640.387</ele>
        <time>2018-12-29T12:51:40Z</time>
      </trkpt>
      <trkpt lat="37.732710" lon="-119.756930">
        <ele>1640.025</ele>
        <time>2018-12-29T12:52:00Z</time>
      </trkpt>
      <trkpt lat="37.732700" lon="-119.756740">
        <ele>1641.010</ele>
        <time>2018-12-29T12:52:20Z</time>
      </trkpt>
      <trkpt lat="37.732650" lon="-119.756570">
        <ele>1642.349</ele>
        <time>2018-12-29T12:52:40Z</time>
      </trkpt>
      <trkpt lat="37.732640" lon="-119.756560">
        <ele>1642.183</ele>
        <time>2018-12-29T12:53:00Z</time>
      </trkpt>
      <trkpt lat="37.732600" lon="-119.756440">
        <ele>1642.079</ele>
        <time>2018-12-29T12:53:20Z</time>
      </trkpt>
      <trkpt lat="37.732560" lon="-119.756330">
        <ele>1641.986</ele>
        <time>2018-12-29T12:53:40Z</time>
      </trkpt>
      <trkpt lat="37.732480" lon="-119.756200">
        <ele>1641.060</ele>
        <time>2018-12-29T12:54:00Z</time>
      </trkpt>
      <trkpt lat="37.732420" lon="-119.756100">
        <ele>1640.572</ele>
        <time>2018-12-29T12:54:20Z</time>
      </trkpt>
      <trkpt lat="37.732350" lon="-119.756040">
        <ele>1638.913</ele>
        <time>2018-12-29T12:54:40Z</time>
      </trkpt>
      <trkpt lat="37.732240" lon="-119.755970">
        <ele>1635.514</ele>
        <time>2018-12-29T12:55:00Z</time>
      </trkpt>
      <trkpt lat="37.732120" lon="-119.755900">
        <ele>1631.508</ele>
        <time>2018-12-29T12:55:20Z</time>
      </trkpt>
      <trkpt lat="37.732020" lon="-119.755860">
        <ele>1628.950</ele>
        <time>2018-12-29T12:55:40Z</time>
      </trkpt>
      <trkpt lat="37.731920" lon="-119.755840">
        <ele>1627.048</ele>
        <time>2018-12-29T12:56:00Z</time>
      </trkpt>
      <trkpt lat="37.731830" lon="-119.755840">
        <ele>1624.943</ele>
        <time>2018-12-29T12:56:20Z</time>
      </trkpt>
      <trkpt lat="37.731730" lon="-119.755860">
        <ele>1624.722</ele>
        <time>2018-12-29T12:56:40Z</time>
      </trkpt>
      <trkpt lat="37.731620" lon="-119.755890">
        <ele>1625.246</ele>
        <time>2018-12-29T12:57:00Z</time>
      </trkpt>
      <trkpt lat="37.731170" lon="-119.756130">
        <ele>1625.212</ele>
        <time>2018-12-29T12:57:20Z</time>
      </trkpt>
      <trkpt lat="37.730920" lon="-119.756250">
        <ele>1623.259</ele>
        <time>2018-12-29T12:57:40Z</time>
      </trkpt>
      <trkpt lat="37.730630" lon="-119.756330">
        <ele>1623.513</ele>
        <time>2018-12-29T12:58:00Z</time>
      </trkpt>
      <trkpt lat="37.730370" lon="-119.756370">
        <ele>1625.277</ele>
        <time>2018-12-29T12:58:20Z</time>
      </trkpt>
      <trkpt lat="37.730130" lon="-119.756410">
        <ele>1627.461</ele>
        <time>2018-12-29T12:58:40Z</time>
      </trkpt>
      <trkpt lat="37.729800" lon="-119.756420">
        <ele>1628.327</ele>
        <time>2018-12-29T12:59:00Z</time>
      </trkpt>
      <trkpt lat="37.729590" lon="-119.756360">
        <ele>1626.808</ele>
        <time>2018-12-29T12:59:20Z</time>
      </trkpt>
      <trkpt lat="37.729420" lon="-119.756290">
        <ele>1624.990</ele>
        <time>2018-12-29T12:59:40Z</time>
      </trkpt>
      <trkpt lat="37.729200" lon="-119.756130">
        <ele>1623.198</ele>
        <time>2018-12-29T13:00:00Z</time>
      </trkpt>
      <trkpt lat="37.729000" lon="-119.755880">
        <ele>1623.213</ele>
        <time>2018-12-29T13:00:20Z</time>
      </trkpt>
      <trkpt lat="37.728900" lon="-119.755730">
        <ele>1623.062</ele>
        <time>2018-12-29T13:00:40Z</time>
      </trkpt>
      <trkpt lat="37.728830" lon="-119.755580">
        <ele>1622.626</ele>
        <time>2018-12-29T13:01:00Z</time>
      </trkpt>
      <trkpt lat="37.728780" lon="-119.755450">
        <ele>1622.172</ele>
        <time>2018-12-29T13:01:20Z</time>
      </trkpt>
      <trkpt lat="37.728710" lon="-119.755100">
        <ele>1620.479</ele>
        <time>2018-12-29T13:01:40Z</time>
      </trkpt>
      <trkpt lat="37.728700" lon="-119.754770">
        <ele>1613.093</ele>
        <time>2018-12-29T13:02:00Z</time>
      </trkpt>
      <trkpt lat="37.728730" lon="-119.754480">
        <ele>1608.387</ele>
        <time>2018-12-29T13:02:20Z</time>
      </trkpt>
      <trkpt lat="37.728800" lon="-119.754230">
        <ele>1607.842</ele>
        <time>2018-12-29T13:02:40Z</time>
      </trkpt>
      <trkpt lat="37.728910" lon="-119.754000">
        <ele>1608.626</ele>
        <time>2018-12-29T13:03:00Z</time>
      </trkpt>
      <trkpt lat="37.729030" lon="-119.753790">
        <ele>1610.508</ele>
        <time>2018-12-29T13:03:20Z</time>
      </trkpt>
      <trkpt lat="37.729320" lon="-119.753360">
        <ele>1613.921</ele>
        <time>2018-12-29T13:03:40Z</time>
      </trkpt>
      <trkpt lat="37.729420" lon="-119.753170">
        <ele>1613.439</ele>
        <time>2018-12-29T13:04:00Z</time>
      </trkpt>
      <trkpt lat="37.729470" lon="-119.753040">
        <ele>1612.264</ele>
        <time>2018-12-29T13:04:20Z</time>
      </trkpt>
      <trkpt lat="37.729510" lon="-119.752900">
        <ele>1610.243</ele>
        <time>2018-12-29T13:04:40Z</time>
      </trkpt>
      <trkpt lat="37.729530" lon="-119.752780">
        <ele>1607.067</ele>
        <time>2018-12-29T13:05:00Z</time>
      </trkpt>
      <trkpt lat="37.729530" lon="-119.752630">
        <ele>1602.373</ele>
        <time>2018-12-29T13:05:20Z</time>
      </trkpt>
      <trkpt lat="37.729520" lon="-119.752460">
        <ele>1599.310</ele>
        <time>2018-12-29T13:05:40Z</time>
      </trkpt>
      <trkpt lat="37.729480" lon="-119.752280">
        <ele>1596.144</ele>
        <time>2018-12-29T13:06:00Z</time>
      </trkpt>
      <trkpt lat="37.729420" lon="-119.752110">
        <ele>1594.716</ele>
        <time>2018-12-29T13:06:20Z</time>
      </trkpt>
      <trkpt lat="37.729300" lon="-119.751920">
        <ele>1595.076</ele>
        <time>2018-12-29T13:06:40Z</time>
      </trkpt>
      <trkpt lat="37.729170" lon="-119.751780">
        <ele>1595.413</ele>
        <time>2018-12-29T13:07:00Z</time>
      </trkpt>
      <trkpt lat="37.728950" lon="-119.751630">
        <ele>1594.808</ele>
        <time>2018-12-29T13:07:20Z</time>
      </trkpt>
      <trkpt lat="37.728650" lon="-119.751470">
        <ele>1593.144</ele>
        <time>2018-12-29T13:07:40Z</time>
      </trkpt>
      <trkpt lat="37.728260" lon="-119.751240">
        <ele>1590.892</ele>
        <time>2018-12-29T13:08:00Z</time>
      </trkpt>
      <trkpt lat="37.727170" lon="-119.750770">
        <ele>1581.257</ele>
        <time>2018-12-29T13:08:20Z</time>
      </trkpt>
      <trkpt lat="37.726890" lon="-119.750590">
        <ele>1580.616</ele>
        <time>2018-12-29T13:08:40Z</time>
      </trkpt>
      <trkpt lat="37.726610" lon="-119.750390">
        <ele>1579.980</ele>
        <time>2018-12-29T13:09:00Z</time>
      </trkpt>
      <trkpt lat="37.726310" lon="-119.750110">
        <ele>1579.616</ele>
        <time>2018-12-29T13:09:20Z</time>
      </trkpt>
      <trkpt lat="37.725990" lon="-119.749750">
        <ele>1578.293</ele>
        <time>2018-12-29T13:09:40Z</time>
      </trkpt>
      <trkpt lat="37.725790" lon="-119.749460">
        <ele>1574.047</ele>
        <time>2018-12-29T13:10:00Z</time>
      </trkpt>
      <trkpt lat="37.725590" lon="-119.749140">
        <ele>1568.722</ele>
        <time>2018-12-29T13:10:20Z</time>
      </trkpt>
      <trkpt lat="37.725370" lon="-119.748760">
        <ele>1568.562</ele>
        <time>2018-12-29T13:10:40Z</time>
      </trkpt>
      <trkpt lat="37.725130" lon="-119.748430">
        <ele>1569.208</ele>
        <time>2018-12-29T13:11:00Z</time>
      </trkpt>
      <trkpt lat="37.724770" lon="-119.748030">
        <ele>1569.008</ele>
        <time>2018-12-29T13:11:20Z</time>
      </trkpt>
      <trkpt lat="37.724390" lon="-119.747590">
        <ele>1567.355</ele>
        <time>2018-12-29T13:11:40Z</time>
      </trkpt>
      <trkpt lat="37.724160" lon="-119.747270">
        <ele>1567.093</ele>
        <time>2018-12-29T13:12:00Z</time>
      </trkpt>
      <trkpt lat="37.723950" lon="-119.747010">
        <ele>1563.218</ele>
        <time>2018-12-29T13:12:20Z</time>
      </trkpt>
      <trkpt lat="37.723670" lon="-119.746720">
        <ele>1556.397</ele>
        <time>2018-12-29T13:12:40Z</time>
      </trkpt>
      <trkpt lat="37.723110" lon="-119.746210">
        <ele>1553.151</ele>
        <time>2018-12-29T13:13:00Z</time>
      </trkpt>
      <trkpt lat="37.722710" lon="-119.745830">
        <ele>1549.067</ele>
        <time>2018-12-29T13:13:20Z</time>
      </trkpt>
      <trkpt lat="37.722340" lon="-119.745470">
        <ele>1543.224</ele>
        <time>2018-12-29T13:13:40Z</time>
      </trkpt>
      <trkpt lat="37.722140" lon="-119.745230">
        <ele>1542.028</ele>
        <time>2018-12-29T13:14:00Z</time>
      </trkpt>
      <trkpt lat="37.721870" lon="-119.744880">
        <ele>1541.762</ele>
        <time>2018-12-29T13:14:20Z</time>
      </trkpt>
      <trkpt lat="37.721630" lon="-119.744610">
        <ele>1541.883</ele>
        <time>2018-12-29T13:14:40Z</time>
      </trkpt>
      <trkpt lat="37.721360" lon="-119.744340">
        <ele>1540.611</ele>
        <time>2018-12-29T13:15:00Z</time>
      </trkpt>
      <trkpt lat="37.720930" lon="-119.743950">
        <ele>1535.008</ele>
        <time>2018-12-29T13:15:20Z</time>
      </trkpt>
      <trkpt lat="37.720680" lon="-119.743710">
        <ele>1528.349</ele>
        <time>2018-12-29T13:15:40Z</time>
      </trkpt>
      <trkpt lat="37.720440" lon="-119.743440">
        <ele>1527.147</ele>
        <time>2018-12-29T13:16:00Z</time>
      </trkpt>
      <trkpt lat="37.720060" lon="-119.742980">
        <ele>1528.342</ele>
        <time>2018-12-29T13:16:20Z</time>
      </trkpt>
      <trkpt lat="37.719720" lon="-119.742580">
        <ele>1527.551</ele>
        <time>2018-12-29T13:16:40Z</time>
      </trkpt>
      <trkpt lat="37.719480" lon="-119.742320">
        <ele>1525.485</ele>
        <time>2018-12-29T13:17:00Z</time>
      </trkpt>
      <trkpt lat="37.719170" lon="-119.741940">
        <ele>1519.981</ele>
        <time>2018-12-29T13:17:20Z</time>
      </trkpt>
      <trkpt lat="37.718790" lon="-119.741570">
        <ele>1517.088</ele>
        <time>2018-12-29T13:17:40Z</time>
      </trkpt>
      <trkpt lat="37.718560" lon="-119.741340">
        <ele>1516.582</ele>
        <time>2018-12-29T13:18:00Z</time>
      </trkpt>
      <trkpt lat="37.718360" lon="-119.741160">
        <ele>1513.842</ele>
        <time>2018-12-29T13:18:20Z</time>
      </trkpt>
      <trkpt lat="37.717840" lon="-119.740770">
        <ele>1506.322</ele>
        <time>2018-12-29T13:18:40Z</time>
      </trkpt>
      <trkpt lat="37.717250" lon="-119.740310">
        <ele>1504.514</ele>
        <time>2018-12-29T13:19:00Z</time>
      </trkpt>
      <trkpt lat="37.717080" lon="-119.740180">
        <ele>1503.408</ele>
        <time>2018-12-29T13:19:20Z</time>
      </trkpt>
      <trkpt lat="37.716860" lon="-119.739980">
        <ele>1501.997</ele>
        <time>2018-12-29T13:19:40Z</time>
      </trkpt>
      <trkpt lat="37.716630" lon="-119.739740">
        <ele>1499.185</ele>
        <time>2018-12-29T13:20:00Z</time>
      </trkpt>
      <trkpt lat="37.716450" lon="-119.739510">
        <ele>1495.580</ele>
        <time>2018-12-29T13:20:20Z</time>
      </trkpt>
      <trkpt lat="37.716190" lon="-119.739150">
        <ele>1492.899</ele>
        <time>2018-12-29T13:20:40Z</time>
      </trkpt>
      <trkpt lat="37.715970" lon="-119.738760">
        <ele>1493.713</ele>
        <time>2018-12-29T13:21:00Z</time>
      </trkpt>
      <trkpt lat="37.715740" lon="-119.738320">
        <ele>1494.049</ele>
        <time>2018-12-29T13:21:20Z</time>
      </trkpt>
      <trkpt lat="37.715530" lon="-119.737940">
        <ele>1493.566</ele>
        <time>2018-12-29T13:21:40Z</time>
      </trkpt>
      <trkpt lat="37.715250" lon="-119.737460">
        <ele>1489.350</ele>
        <time>2018-12-29T13:22:00Z</time>
      </trkpt>
      <trkpt lat="37.715010" lon="-119.737140">
        <ele>1485.332</ele>
        <time>2018-12-29T13:22:20Z</time>
      </trkpt>
      <trkpt lat="37.714630" lon="-119.736620">
        <ele>1481.992</ele>
        <time>2018-12-29T13:22:40Z</time>
      </trkpt>
      <trkpt lat="37.714530" lon="-119.736440">
        <ele>1480.411</ele>
        <time>2018-12-29T13:23:00Z</time>
      </trkpt>
      <trkpt lat="37.714440" lon="-119.736280">
        <ele>1479.008</ele>
        <time>2018-12-29T13:23:20Z</time>
      </trkpt>
      <trkpt lat="37.714320" lon="-119.735990">
        <ele>1474.216</ele>
        <time>2018-12-29T13:23:40Z</time>
      </trkpt>
      <trkpt lat="37.714200" lon="-119.735640">
        <ele>1471.774</ele>
        <time>2018-12-29T13:24:00Z</time>
      </trkpt>
      <trkpt lat="37.714150" lon="-119.735420">
        <ele>1471.089</ele>
        <time>2018-12-29T13:24:20Z</time>
      </trkpt>
      <trkpt lat="37.714100" lon="-119.735200">
        <ele>1470.618</ele>
        <time>2018-12-29T13:24:40Z</time>
      </trkpt>
      <trkpt lat="37.714070" lon="-119.734920">
        <ele>1470.842</ele>
        <time>2018-12-29T13:25:00Z</time>
      </trkpt>
      <trkpt lat="37.714040" lon="-119.734460">
        <ele>1470.928</ele>
        <time>2018-12-29T13:25:20Z</time>
      </trkpt>
      <trkpt lat="37.714050" lon="-119.733860">
        <ele>1466.965</ele>
        <time>2018-12-29T13:25:40Z</time>
      </trkpt>
      <trkpt lat="37.714040" lon="-119.733620">
        <ele>1463.069</ele>
        <time>2018-12-29T13:26:00Z</time>
      </trkpt>
      <trkpt lat="37.714020" lon="-119.733410">
        <ele>1459.939</ele>
        <time>2018-12-29T13:26:20Z</time>
      </trkpt>
      <trkpt lat="37.713980" lon="-119.733180">
        <ele>1457.501</ele>
        <time>2018-12-29T13:26:40Z</time>
      </trkpt>
      <trkpt lat="37.713880" lon="-119.732880">
        <ele>1455.421</ele>
        <time>2018-12-29T13:27:00Z</time>
      </trkpt>
      <trkpt lat="37.713690" lon="-119.732310">
        <ele>1455.608</ele>
        <time>2018-12-29T13:27:20Z</time>
      </trkpt>
      <trkpt lat="37.713570" lon="-119.731920">
        <ele>1455.536</ele>
        <time>2018-12-29T13:27:40Z</time>
      </trkpt>
      <trkpt lat="37.713490" lon="-119.731440">
        <ele>1454.664</ele>
        <time>2018-12-29T13:28:00Z</time>
      </trkpt>
      <trkpt lat="37.713480" lon="-119.731190">
        <ele>1452.899</ele>
        <time>2018-12-29T13:28:20Z</time>
      </trkpt>
      <trkpt lat="37.713490" lon="-119.730850">
        <ele>1450.598</ele>
        <time>2018-12-29T13:28:40Z</time>
      </trkpt>
      <trkpt lat="37.713500" lon="-119.730560">
        <ele>1449.612</ele>
        <time>2018-12-29T13:29:00Z</time>
      </trkpt>
      <trkpt lat="37.713500" lon="-119.730320">
        <ele>1448.238</ele>
        <time>2018-12-29T13:29:20Z</time>
      </trkpt>
      <trkpt lat="37.713550" lon="-119.729540">
        <ele>1447.215</ele>
        <time>2018-12-29T13:29:40Z</time>
      </trkpt>
      <trkpt lat="37.713600" lon="-119.728610">
        <ele>1441.119</ele>
        <time>2018-12-29T13:30:00Z</time>
      </trkpt>
      <trkpt lat="37.713680" lon="-119.728070">
        <ele>1437.196</ele>
        <time>2018-12-29T13:30:20Z</time>
      </trkpt>
      <trkpt lat="37.713830" lon="-119.727630">
        <ele>1439.531</ele>
        <time>2018-12-29T13:30:40Z</time>
      </trkpt>
      <trkpt lat="37.714010" lon="-119.727260">
        <ele>1437.924</ele>
        <time>2018-12-29T13:31:00Z</time>
      </trkpt>
      <trkpt lat="37.714370" lon="-119.726810">
        <ele>1436.908</ele>
        <time>2018-12-29T13:31:20Z</time>
      </trkpt>
      <trkpt lat="37.714670" lon="-119.726550">
        <ele>1435.032</ele>
        <time>2018-12-29T13:31:40Z</time>
      </trkpt>
      <trkpt lat="37.715460" lon="-119.726050">
        <ele>1434.410</ele>
        <time>2018-12-29T13:32:00Z</time>
      </trkpt>
      <trkpt lat="37.715720" lon="-119.725850">
        <ele>1431.965</ele>
        <time>2018-12-29T13:32:20Z</time>
      </trkpt>
      <trkpt lat="37.715870" lon="-119.725710">
        <ele>1430.494</ele>
        <time>2018-12-29T13:32:40Z</time>
      </trkpt>
      <trkpt lat="37.715980" lon="-119.725530">
        <ele>1428.228</ele>
        <time>2018-12-29T13:33:00Z</time>
      </trkpt>
      <trkpt lat="37.716470" lon="-119.724740">
        <ele>1412.614</ele>
        <time>2018-12-29T13:33:20Z</time>
      </trkpt>
      <trkpt lat="37.716750" lon="-119.724150">
        <ele>1409.731</ele>
        <time>2018-12-29T13:33:40Z</time>
      </trkpt>
      <trkpt lat="37.716900" lon="-119.723830">
        <ele>1413.195</ele>
        <time>2018-12-29T13:34:00Z</time>
      </trkpt>
      <trkpt lat="37.717110" lon="-119.723540">
        <ele>1417.947</ele>
        <time>2018-12-29T13:34:20Z</time>
      </trkpt>
      <trkpt lat="37.717580" lon="-119.723060">
        <ele>1427.329</ele>
        <time>2018-12-29T13:34:40Z</time>
      </trkpt>
      <trkpt lat="37.717850" lon="-119.722750">
        <ele>1433.321</ele>
        <time>2018-12-29T13:35:00Z</time>
      </trkpt>
      <trkpt lat="37.718140" lon="-119.722270">
        <ele>1424.808</ele>
        <time>2018-12-29T13:35:20Z</time>
      </trkpt>
      <trkpt lat="37.718210" lon="-119.722190">
        <ele>1424.267</ele>
        <time>2018-12-29T13:35:40Z</time>
      </trkpt>
      <trkpt lat="37.718320" lon="-119.722130">
        <ele>1427.555</ele>
        <time>2018-12-29T13:36:00Z</time>
      </trkpt>
      <trkpt lat="37.718590" lon="-119.722050">
        <ele>1438.060</ele>
        <time>2018-12-29T13:36:20Z</time>
      </trkpt>
      <trkpt lat="37.718940" lon="-119.721860">
        <ele>1443.559</ele>
        <time>2018-12-29T13:36:40Z</time>
      </trkpt>
      <trkpt lat="37.719050" lon="-119.721760">
        <ele>1442.843</ele>
        <time>2018-12-29T13:37:00Z</time>
      </trkpt>
      <trkpt lat="37.719310" lon="-119.721510">
        <ele>1440.449</ele>
        <time>2018-12-29T13:37:20Z</time>
      </trkpt>
      <trkpt lat="37.719790" lon="-119.721240">
        <ele>1437.176</ele>
        <time>2018-12-29T13:37:40Z</time>
      </trkpt>
      <trkpt lat="37.720100" lon="-119.721130">
        <ele>1437.680</ele>
        <time>2018-12-29T13:38:00Z</time>
      </trkpt>
      <trkpt lat="37.720430" lon="-119.720970">
        <ele>1435.947</ele>
        <time>2018-12-29T13:38:20Z</time>
      </trkpt>
      <trkpt lat="37.720830" lon="-119.720710">
        <ele>1430.629</ele>
        <time>2018-12-29T13:38:40Z</time>
      </trkpt>
      <trkpt lat="37.721200" lon="-119.720340">
        <ele>1419.721</ele>
        <time>2018-12-29T13:39:00Z</time>
      </trkpt>
      <trkpt lat="37.721520" lon="-119.719970">
        <ele>1409.108</ele>
        <time>2018-12-29T13:39:20Z</time>
      </trkpt>
      <trkpt lat="37.721820" lon="-119.719750">
        <ele>1405.597</ele>
        <time>2018-12-29T13:39:40Z</time>
      </trkpt>
      <trkpt lat="37.722150" lon="-119.719490">
        <ele>1396.335</ele>
        <time>2018-12-29T13:40:00Z</time>
      </trkpt>
      <trkpt lat="37.722370" lon="-119.719300">
        <ele>1386.880</ele>
        <time>2018-12-29T13:40:20Z</time>
      </trkpt>
      <trkpt lat="37.722380" lon="-119.719290">
        <ele>1386.579</ele>
        <time>2018-12-29T13:40:40Z</time>
      </trkpt>
      <trkpt lat="37.722760" lon="-119.718990">
        <ele>1375.483</ele>
        <time>2018-12-29T13:41:00Z</time>
      </trkpt>
      <trkpt lat="37.723140" lon="-119.718760">
        <ele>1372.339</ele>
        <time>2018-12-29T13:41:20Z</time>
      </trkpt>
      <trkpt lat="37.723420" lon="-119.718640">
        <ele>1370.916</ele>
        <time>2018-12-29T13:41:40Z</time>
      </trkpt>
      <trkpt lat="37.723600" lon="-119.718590">
        <ele>1370.370</ele>
        <time>2018-12-29T13:42:00Z</time>
      </trkpt>
      <trkpt lat="37.723710" lon="-119.718560">
        <ele>1369.749</ele>
        <time>2018-12-29T13:42:20Z</time>
      </trkpt>
      <trkpt lat="37.724000" lon="-119.718500">
        <ele>1365.802</ele>
        <time>2018-12-29T13:42:40Z</time>
      </trkpt>
      <trkpt lat="37.724290" lon="-119.718410">
        <ele>1359.922</ele>
        <time>2018-12-29T13:43:00Z</time>
      </trkpt>
      <trkpt lat="37.724650" lon="-119.718330">
        <ele>1355.108</ele>
        <time>2018-12-29T13:43:20Z</time>
      </trkpt>
      <trkpt lat="37.724870" lon="-119.718240">
        <ele>1349.677</ele>
        <time>2018-12-29T13:43:40Z</time>
      </trkpt>
      <trkpt lat="37.724950" lon="-119.718190">
        <ele>1347.935</ele>
        <time>2018-12-29T13:44:00Z</time>
      </trkpt>
      <trkpt lat="37.725210" lon="-119.718020">
        <ele>1346.440</ele>
        <time>2018-12-29T13:44:20Z</time>
      </trkpt>
      <trkpt lat="37.725470" lon="-119.717850">
        <ele>1354.349</ele>
        <time>2018-12-29T13:44:40Z</time>
      </trkpt>
      <trkpt lat="37.725590" lon="-119.717720">
        <ele>1356.243</ele>
        <time>2018-12-29T13:45:00Z</time>
      </trkpt>
      <trkpt lat="37.725690" lon="-119.717600">
        <ele>1356.119</ele>
        <time>2018-12-29T13:45:20Z</time>
      </trkpt>
      <trkpt lat="37.725750" lon="-119.717530">
        <ele>1355.096</ele>
        <time>2018-12-29T13:45:40Z</time>
      </trkpt>
      <trkpt lat="37.725850" lon="-119.717380">
        <ele>1352.610</ele>
        <time>2018-12-29T13:46:00Z</time>
      </trkpt>
      <trkpt lat="37.726660" lon="-119.716050">
        <ele>1341.532</ele>
        <time>2018-12-29T13:46:20Z</time>
      </trkpt>
      <trkpt lat="37.726690" lon="-119.715980">
        <ele>1340.292</ele>
        <time>2018-12-29T13:46:40Z</time>
      </trkpt>
      <trkpt lat="37.726870" lon="-119.715710">
        <ele>1339.211</ele>
        <time>2018-12-29T13:47:00Z</time>
      </trkpt>
      <trkpt lat="37.726950" lon="-119.715620">
        <ele>1339.308</ele>
        <time>2018-12-29T13:47:20Z</time>
      </trkpt>
      <trkpt lat="37.727160" lon="-119.715340">
        <ele>1337.976</ele>
        <time>2018-12-29T13:47:40Z</time>
      </trkpt>
      <trkpt lat="37.727340" lon="-119.715120">
        <ele>1334.164</ele>
        <time>2018-12-29T13:48:00Z</time>
      </trkpt>
      <trkpt lat="37.727470" lon="-119.714940">
        <ele>1332.099</ele>
        <time>2018-12-29T13:48:20Z</time>
      </trkpt>
      <trkpt lat="37.727540" lon="-119.714810">
        <ele>1329.848</ele>
        <time>2018-12-29T13:48:40Z</time>
      </trkpt>
      <trkpt lat="37.727590" lon="-119.714680">
        <ele>1328.062</ele>
        <time>2018-12-29T13:49:00Z</time>
      </trkpt>
      <trkpt lat="37.727670" lon="-119.714410">
        <ele>1324.648</ele>
        <time>2018-12-29T13:49:20Z</time>
      </trkpt>
      <trkpt lat="37.727690" lon="-119.714350">
        <ele>1324.225</ele>
        <time>2018-12-29T13:49:40Z</time>
      </trkpt>
      <trkpt lat="37.727700" lon="-119.714300">
        <ele>1323.859</ele>
        <time>2018-12-29T13:50:00Z</time>
      </trkpt>
      <trkpt lat="37.727730" lon="-119.713970">
        <ele>1328.054</ele>
        <time>2018-12-29T13:50:20Z</time>
      </trkpt>
      <trkpt lat="37.727730" lon="-119.713760">
        <ele>1330.356</ele>
        <time>2018-12-29T13:50:40Z</time>
      </trkpt>
      <trkpt lat="37.727700" lon="-119.713420">
        <ele>1327.711</ele>
        <time>2018-12-29T13:51:00Z</time>
      </trkpt>
      <trkpt lat="37.727650" lon="-119.713070">
        <ele>1323.808</ele>
        <time>2018-12-29T13:51:20Z</time>
      </trkpt>
      <trkpt lat="37.727600" lon="-119.712820">
        <ele>1325.458</ele>
        <time>2018-12-29T13:51:40Z</time>
      </trkpt>
      <trkpt lat="37.727560" lon="-119.712550">
        <ele>1326.816</ele>
        <time>2018-12-29T13:52:00Z</time>
      </trkpt>
      <trkpt lat="37.727530" lon="-119.712330">
        <ele>1326.761</ele>
        <time>2018-12-29T13:52:20Z</time>
      </trkpt>
      <trkpt lat="37.727530" lon="-119.712110">
        <ele>1326.370</ele>
        <time>2018-12-29T13:52:40Z</time>
      </trkpt>
      <trkpt lat="37.727540" lon="-119.711940">
        <ele>1325.374</ele>
        <time>2018-12-29T13:53:00Z</time>
      </trkpt>
      <trkpt lat="37.727580" lon="-119.711760">
        <ele>1324.280</ele>
        <time>2018-12-29T13:53:20Z</time>
      </trkpt>
      <trkpt lat="37.727630" lon="-119.711560">
        <ele>1318.527</ele>
        <time>2018-12-29T13:53:40Z</time>
      </trkpt>
      <trkpt lat="37.727740" lon="-119.711320">
        <ele>1326.831</ele>
        <time>2018-12-29T13:54:00Z</time>
      </trkpt>
      <trkpt lat="37.727830" lon="-119.711110">
        <ele>1333.052</ele>
        <time>2018-12-29T13:54:20Z</time>
      </trkpt>
      <trkpt lat="37.727870" lon="-119.710950">
        <ele>1333.553</ele>
        <time>2018-12-29T13:54:40Z</time>
      </trkpt>
      <trkpt lat="37.727890" lon="-119.710790">
        <ele>1330.508</ele>
        <time>2018-12-29T13:55:00Z</time>
      </trkpt>
      <trkpt lat="37.727900" lon="-119.710540">
        <ele>1325.608</ele>
        <time>2018-12-29T13:55:20Z</time>
      </trkpt>
      <trkpt lat="37.727870" lon="-119.710140">
        <ele>1320.188</ele>
        <time>2018-12-29T13:55:40Z</time>
      </trkpt>
      <trkpt lat="37.727850" lon="-119.709800">
        <ele>1315.016</ele>
        <time>2018-12-29T13:56:00Z</time>
      </trkpt>
      <trkpt lat="37.727830" lon="-119.709530">
        <ele>1314.771</ele>
        <time>2018-12-29T13:56:20Z</time>
      </trkpt>
      <trkpt lat="37.727810" lon="-119.709310">
        <ele>1313.320</ele>
        <time>2018-12-29T13:56:40Z</time>
      </trkpt>
      <trkpt lat="37.727790" lon="-119.709120">
        <ele>1314.184</ele>
        <time>2018-12-29T13:57:00Z</time>
      </trkpt>
      <trkpt lat="37.727750" lon="-119.708950">
        <ele>1313.290</ele>
        <time>2018-12-29T13:57:20Z</time>
      </trkpt>
      <trkpt lat="37.727700" lon="-119.708820">
        <ele>1310.737</ele>
        <time>2018-12-29T13:57:40Z</time>
      </trkpt>
      <trkpt lat="37.727630" lon="-119.708680">
        <ele>1307.991</ele>
        <time>2018-12-29T13:58:00Z</time>
      </trkpt>
      <trkpt lat="37.727550" lon="-119.708560">
        <ele>1308.155</ele>
        <time>2018-12-29T13:58:20Z</time>
      </trkpt>
      <trkpt lat="37.727470" lon="-119.708480">
        <ele>1305.707</ele>
        <time>2018-12-29T13:58:40Z</time>
      </trkpt>
      <trkpt lat="37.727350" lon="-119.708370">
        <ele>1301.817</ele>
        <time>2018-12-29T13:59:00Z</time>
      </trkpt>
      <trkpt lat="37.727010" lon="-119.708100">
        <ele>1303.408</ele>
        <time>2018-12-29T13:59:20Z</time>
      </trkpt>
      <trkpt lat="37.726750" lon="-119.707880">
        <ele>1303.228</ele>
        <time>2018-12-29T13:59:40Z</time>
      </trkpt>
      <trkpt lat="37.726570" lon="-119.707720">
        <ele>1299.016</ele>
        <time>2018-12-29T14:00:00Z</time>
      </trkpt>
      <trkpt lat="37.726470" lon="-119.707580">
        <ele>1298.361</ele>
        <time>2018-12-29T14:00:20Z</time>
      </trkpt>
      <trkpt lat="37.726410" lon="-119.707490">
        <ele>1299.470</ele>
        <time>2018-12-29T14:00:40Z</time>
      </trkpt>
      <trkpt lat="37.726300" lon="-119.707260">
        <ele>1301.364</ele>
        <time>2018-12-29T14:01:00Z</time>
      </trkpt>
      <trkpt lat="37.726170" lon="-119.706940">
        <ele>1305.580</ele>
        <time>2018-12-29T14:01:20Z</time>
      </trkpt>
      <trkpt lat="37.726100" lon="-119.706760">
        <ele>1303.997</ele>
        <time>2018-12-29T14:01:40Z</time>
      </trkpt>
      <trkpt lat="37.726000" lon="-119.706520">
        <ele>1296.791</ele>
        <time>2018-12-29T14:02:00Z</time>
      </trkpt>
      <trkpt lat="37.725650" lon="-119.705770">
        <ele>1296.216</ele>
        <time>2018-12-29T14:02:20Z</time>
      </trkpt>
      <trkpt lat="37.725510" lon="-119.705460">
        <ele>1287.876</ele>
        <time>2018-12-29T14:02:40Z</time>
      </trkpt>
      <trkpt lat="37.725440" lon="-119.705290">
        <ele>1283.613</ele>
        <time>2018-12-29T14:03:00Z</time>
      </trkpt>
      <trkpt lat="37.725410" lon="-119.705180">
        <ele>1283.408</ele>
        <time>2018-12-29T14:03:20Z</time>
      </trkpt>
      <trkpt lat="37.725390" lon="-119.705090">
        <ele>1283.784</ele>
        <time>2018-12-29T14:03:40Z</time>
      </trkpt>
      <trkpt lat="37.725370" lon="-119.704890">
        <ele>1284.932</ele>
        <time>2018-12-29T14:04:00Z</time>
      </trkpt>
      <trkpt lat="37.725360" lon="-119.704740">
        <ele>1282.877</ele>
        <time>2018-12-29T14:04:20Z</time>
      </trkpt>
      <trkpt lat="37.725360" lon="-119.704460">
        <ele>1283.946</ele>
        <time>2018-12-29T14:04:40Z</time>
      </trkpt>
      <trkpt lat="37.725350" lon="-119.704160">
        <ele>1294.420</ele>
        <time>2018-12-29T14:05:00Z</time>
      </trkpt>
      <trkpt lat="37.725350" lon="-119.703740">
        <ele>1295.116</ele>
        <time>2018-12-29T14:05:20Z</time>
      </trkpt>
      <trkpt lat="37.725320" lon="-119.703350">
        <ele>1280.323</ele>
        <time>2018-12-29T14:05:40Z</time>
      </trkpt>
      <trkpt lat="37.725280" lon="-119.703100">
        <ele>1283.117</ele>
        <time>2018-12-29T14:06:00Z</time>
      </trkpt>
      <trkpt lat="37.725190" lon="-119.702860">
        <ele>1283.014</ele>
        <time>2018-12-29T14:06:20Z</time>
      </trkpt>
      <trkpt lat="37.725060" lon="-119.702650">
        <ele>1278.054</ele>
        <time>2018-12-29T14:06:40Z</time>
      </trkpt>
      <trkpt lat="37.724710" lon="-119.702130">
        <ele>1274.909</ele>
        <time>2018-12-29T14:07:00Z</time>
      </trkpt>
      <trkpt lat="37.724510" lon="-119.701740">
        <ele>1271.908</ele>
        <time>2018-12-29T14:07:20Z</time>
      </trkpt>
      <trkpt lat="37.724310" lon="-119.701310">
        <ele>1268.824</ele>
        <time>2018-12-29T14:07:40Z</time>
      </trkpt>
      <trkpt lat="37.724110" lon="-119.700990">
        <ele>1268.252</ele>
        <time>2018-12-29T14:08:00Z</time>
      </trkpt>
      <trkpt lat="37.723950" lon="-119.700790">
        <ele>1262.257</ele>
        <time>2018-12-29T14:08:20Z</time>
      </trkpt>
      <trkpt lat="37.723840" lon="-119.700650">
        <ele>1258.926</ele>
        <time>2018-12-29T14:08:40Z</time>
      </trkpt>
      <trkpt lat="37.723770" lon="-119.700490">
        <ele>1258.660</ele>
        <time>2018-12-29T14:09:00Z</time>
      </trkpt>
      <trkpt lat="37.723670" lon="-119.700220">
        <ele>1260.516</ele>
        <time>2018-12-29T14:09:20Z</time>
      </trkpt>
      <trkpt lat="37.723550" lon="-119.699720">
        <ele>1263.333</ele>
        <time>2018-12-29T14:09:40Z</time>
      </trkpt>
      <trkpt lat="37.723430" lon="-119.699330">
        <ele>1263.627</ele>
        <time>2018-12-29T14:10:00Z</time>
      </trkpt>
      <trkpt lat="37.723350" lon="-119.699010">
        <ele>1268.167</ele>
        <time>2018-12-29T14:10:20Z</time>
      </trkpt>
      <trkpt lat="37.723330" lon="-119.698810">
        <ele>1280.681</ele>
        <time>2018-12-29T14:10:40Z</time>
      </trkpt>
      <trkpt lat="37.723330" lon="-119.698660">
        <ele>1289.419</ele>
        <time>2018-12-29T14:11:00Z</time>
      </trkpt>
      <trkpt lat="37.723320" lon="-119.698070">
        <ele>1283.608</ele>
        <time>2018-12-29T14:11:20Z</time>
      </trkpt>
      <trkpt lat="37.723310" lon="-119.697220">
        <ele>1247.329</ele>
        <time>2018-12-29T14:11:40Z</time>
      </trkpt>
      <trkpt lat="37.723300" lon="-119.696980">
        <ele>1245.857</ele>
        <time>2018-12-29T14:12:00Z</time>
      </trkpt>
      <trkpt lat="37.723270" lon="-119.696800">
        <ele>1244.422</ele>
        <time>2018-12-29T14:12:20Z</time>
      </trkpt>
      <trkpt lat="37.723240" lon="-119.696670">
        <ele>1245.121</ele>
        <time>2018-12-29T14:12:40Z</time>
      </trkpt>
      <trkpt lat="37.723200" lon="-119.696550">
        <ele>1244.445</ele>
        <time>2018-12-29T14:13:00Z</time>
      </trkpt>
      <trkpt lat="37.723120" lon="-119.696370">
        <ele>1243.911</ele>
        <time>2018-12-29T14:13:20Z</time>
      </trkpt>
      <trkpt lat="37.723070" lon="-119.696240">
        <ele>1243.258</ele>
        <time>2018-12-29T14:13:40Z</time>
      </trkpt>
      <trkpt lat="37.723030" lon="-119.696140">
        <ele>1240.032</ele>
        <time>2018-12-29T14:14:00Z</time>
      </trkpt>
      <trkpt lat="37.722980" lon="-119.695960">
        <ele>1234.343</ele>
        <time>2018-12-29T14:14:20Z</time>
      </trkpt>
      <trkpt lat="37.722940" lon="-119.695780">
        <ele>1232.164</ele>
        <time>2018-12-29T14:14:40Z</time>
      </trkpt>
      <trkpt lat="37.722920" lon="-119.695580">
        <ele>1231.910</ele>
        <time>2018-12-29T14:15:00Z</time>
      </trkpt>
      <trkpt lat="37.722910" lon="-119.695430">
        <ele>1233.008</ele>
        <time>2018-12-29T14:15:20Z</time>
      </trkpt>
      <trkpt lat="37.722900" lon="-119.695310">
        <ele>1234.047</ele>
        <time>2018-12-29T14:15:40Z</time>
      </trkpt>
      <trkpt lat="37.722860" lon="-119.695120">
        <ele>1234.935</ele>
        <time>2018-12-29T14:16:00Z</time>
      </trkpt>
      <trkpt lat="37.722790" lon="-119.694920">
        <ele>1236.980</ele>
        <time>2018-12-29T14:16:20Z</time>
      </trkpt>
      <trkpt lat="37.722700" lon="-119.694740">
        <ele>1233.789</ele>
        <time>2018-12-29T14:16:40Z</time>
      </trkpt>
      <trkpt lat="37.722550" lon="-119.694510">
        <ele>1229.863</ele>
        <time>2018-12-29T14:17:00Z</time>
      </trkpt>
      <trkpt lat="37.722400" lon="-119.694230">
        <ele>1229.949</ele>
        <time>2018-12-29T14:17:20Z</time>
      </trkpt>
      <trkpt lat="37.722350" lon="-119.694130">
        <ele>1228.236</ele>
        <time>2018-12-29T14:17:40Z</time>
      </trkpt>
      <trkpt lat="37.722310" lon="-119.694000">
        <ele>1228.310</ele>
        <time>2018-12-29T14:18:00Z</time>
      </trkpt>
      <trkpt lat="37.722250" lon="-119.693780">
        <ele>1228.532</ele>
        <time>2018-12-29T14:18:20Z</time>
      </trkpt>
      <trkpt lat="37.722200" lon="-119.693500">
        <ele>1229.492</ele>
        <time>2018-12-29T14:18:40Z</time>
      </trkpt>
      <trkpt lat="37.722160" lon="-119.693230">
        <ele>1230.511</ele>
        <time>2018-12-29T14:19:00Z</time>
      </trkpt>
      <trkpt lat="37.722080" lon="-119.693000">
        <ele>1228.408</ele>
        <time>2018-12-29T14:19:20Z</time>
      </trkpt>
      <trkpt lat="37.721970" lon="-119.692780">
        <ele>1229.386</ele>
        <time>2018-12-29T14:19:40Z</time>
      </trkpt>
      <trkpt lat="37.721850" lon="-119.692600">
        <ele>1229.494</ele>
        <time>2018-12-29T14:20:00Z</time>
      </trkpt>
      <trkpt lat="37.721770" lon="-119.692490">
        <ele>1227.929</ele>
        <time>2018-12-29T14:20:20Z</time>
      </trkpt>
      <trkpt lat="37.721720" lon="-119.692420">
        <ele>1227.358</ele>
        <time>2018-12-29T14:20:40Z</time>
      </trkpt>
      <trkpt lat="37.721630" lon="-119.692260">
        <ele>1226.442</ele>
        <time>2018-12-29T14:21:00Z</time>
      </trkpt>
      <trkpt lat="37.721570" lon="-119.692060">
        <ele>1226.148</ele>
        <time>2018-12-29T14:21:20Z</time>
      </trkpt>
      <trkpt lat="37.721550" lon="-119.691910">
        <ele>1225.915</ele>
        <time>2018-12-29T14:21:40Z</time>
      </trkpt>
      <trkpt lat="37.721540" lon="-119.691790">
        <ele>1225.939</ele>
        <time>2018-12-29T14:22:00Z</time>
      </trkpt>
      <trkpt lat="37.721550" lon="-119.691640">
        <ele>1225.833</ele>
        <time>2018-12-29T14:22:20Z</time>
      </trkpt>
      <trkpt lat="37.721590" lon="-119.691460">
        <ele>1225.223</ele>
        <time>2018-12-29T14:22:40Z</time>
      </trkpt>
      <trkpt lat="37.721630" lon="-119.691330">
        <ele>1223.015</ele>
        <time>2018-12-29T14:23:00Z</time>
      </trkpt>
      <trkpt lat="37.721690" lon="-119.691180">
        <ele>1219.808</ele>
        <time>2018-12-29T14:23:20Z</time>
      </trkpt>
      <trkpt lat="37.721820" lon="-119.690880">
        <ele>1215.946</ele>
        <time>2018-12-29T14:23:40Z</time>
      </trkpt>
      <trkpt lat="37.721920" lon="-119.690600">
        <ele>1213.434</ele>
        <time>2018-12-29T14:24:00Z</time>
      </trkpt>
      <trkpt lat="37.721990" lon="-119.690340">
        <ele>1211.489</ele>
        <time>2018-12-29T14:24:20Z</time>
      </trkpt>
      <trkpt lat="37.722020" lon="-119.690170">
        <ele>1207.958</ele>
        <time>2018-12-29T14:24:40Z</time>
      </trkpt>
      <trkpt lat="37.722030" lon="-119.689930">
        <ele>1206.742</ele>
        <time>2018-12-29T14:25:00Z</time>
      </trkpt>
      <trkpt lat="37.722000" lon="-119.689560">
        <ele>1206.728</ele>
        <time>2018-12-29T14:25:20Z</time>
      </trkpt>
      <trkpt lat="37.721970" lon="-119.689360">
        <ele>1208.465</ele>
        <time>2018-12-29T14:25:40Z</time>
      </trkpt>
      <trkpt lat="37.721930" lon="-119.689210">
        <ele>1207.689</ele>
        <time>2018-12-29T14:26:00Z</time>
      </trkpt>
      <trkpt lat="37.721750" lon="-119.688620">
        <ele>1203.117</ele>
        <time>2018-12-29T14:26:20Z</time>
      </trkpt>
      <trkpt lat="37.721620" lon="-119.688250">
        <ele>1200.287</ele>
        <time>2018-12-29T14:26:40Z</time>
      </trkpt>
      <trkpt lat="37.721460" lon="-119.687750">
        <ele>1198.815</ele>
        <time>2018-12-29T14:27:00Z</time>
      </trkpt>
      <trkpt lat="37.721320" lon="-119.687340">
        <ele>1197.108</ele>
        <time>2018-12-29T14:27:20Z</time>
      </trkpt>
      <trkpt lat="37.721200" lon="-119.687020">
        <ele>1194.524</ele>
        <time>2018-12-29T14:27:40Z</time>
      </trkpt>
      <trkpt lat="37.721140" lon="-119.686860">
        <ele>1196.512</ele>
        <time>2018-12-29T14:28:00Z</time>
      </trkpt>
      <trkpt lat="37.721090" lon="-119.686760">
        <ele>1196.857</ele>
        <time>2018-12-29T14:28:20Z</time>
      </trkpt>
      <trkpt lat="37.721030" lon="-119.686650">
        <ele>1196.266</ele>
        <time>2018-12-29T14:28:40Z</time>
      </trkpt>
      <trkpt lat="37.720970" lon="-119.686550">
        <ele>1194.420</ele>
        <time>2018-12-29T14:29:00Z</time>
      </trkpt>
      <trkpt lat="37.720840" lon="-119.686360">
        <ele>1194.326</ele>
        <time>2018-12-29T14:29:20Z</time>
      </trkpt>
      <trkpt lat="37.720700" lon="-119.686170">
        <ele>1189.413</ele>
        <time>2018-12-29T14:29:40Z</time>
      </trkpt>
      <trkpt lat="37.720580" lon="-119.686000">
        <ele>1186.837</ele>
        <time>2018-12-29T14:30:00Z</time>
      </trkpt>
      <trkpt lat="37.720480" lon="-119.685870">
        <ele>1184.642</ele>
        <time>2018-12-29T14:30:20Z</time>
      </trkpt>
      <trkpt lat="37.720300" lon="-119.685570">
        <ele>1185.322</ele>
        <time>2018-12-29T14:30:40Z</time>
      </trkpt>
      <trkpt lat="37.720190" lon="-119.685360">
        <ele>1185.314</ele>
        <time>2018-12-29T14:31:00Z</time>
      </trkpt>
      <trkpt lat="37.720040" lon="-119.685010">
        <ele>1184.808</ele>
        <time>2018-12-29T14:31:20Z</time>
      </trkpt>
      <trkpt lat="37.719810" lon="-119.684370">
        <ele>1181.787</ele>
        <time>2018-12-29T14:31:40Z</time>
      </trkpt>
      <trkpt lat="37.719680" lon="-119.684030">
        <ele>1176.415</ele>
        <time>2018-12-29T14:32:00Z</time>
      </trkpt>
      <trkpt lat="37.719590" lon="-119.683770">
        <ele>1170.740</ele>
        <time>2018-12-29T14:32:20Z</time>
      </trkpt>
      <trkpt lat="37.719550" lon="-119.683640">
        <ele>1169.949</ele>
        <time>2018-12-29T14:32:40Z</time>
      </trkpt>
      <trkpt lat="37.719530" lon="-119.683470">
        <ele>1170.113</ele>
        <time>2018-12-29T14:33:00Z</time>
      </trkpt>
      <trkpt lat="37.719510" lon="-119.683290">
        <ele>1170.389</ele>
        <time>2018-12-29T14:33:20Z</time>
      </trkpt>
      <trkpt lat="37.719500" lon="-119.683150">
        <ele>1171.026</ele>
        <time>2018-12-29T14:33:40Z</time>
      </trkpt>
      <trkpt lat="37.719480" lon="-119.683030">
        <ele>1171.960</ele>
        <time>2018-12-29T14:34:00Z</time>
      </trkpt>
      <trkpt lat="37.719460" lon="-119.682900">
        <ele>1172.667</ele>
        <time>2018-12-29T14:34:20Z</time>
      </trkpt>
      <trkpt lat="37.719430" lon="-119.682770">
        <ele>1172.781</ele>
        <time>2018-12-29T14:34:40Z</time>
      </trkpt>
      <trkpt lat="37.719400" lon="-119.682670">
        <ele>1172.219</ele>
        <time>2018-12-29T14:35:00Z</time>
      </trkpt>
      <trkpt lat="37.719370" lon="-119.682590">
        <ele>1171.908</ele>
        <time>2018-12-29T14:35:20Z</time>
      </trkpt>
      <trkpt lat="37.719350" lon="-119.682560">
        <ele>1171.119</ele>
        <time>2018-12-29T14:35:40Z</time>
      </trkpt>
      <trkpt lat="37.719330" lon="-119.682530">
        <ele>1170.177</ele>
        <time>2018-12-29T14:36:00Z</time>
      </trkpt>
      <trkpt lat="37.719310" lon="-119.682500">
        <ele>1168.832</ele>
        <time>2018-12-29T14:36:20Z</time>
      </trkpt>
      <trkpt lat="37.719290" lon="-119.682480">
        <ele>1168.341</ele>
        <time>2018-12-29T14:36:40Z</time>
      </trkpt>
      <trkpt lat="37.719270" lon="-119.682470">
        <ele>1167.915</ele>
        <time>2018-12-29T14:37:00Z</time>
      </trkpt>
      <trkpt lat="37.719250" lon="-119.682460">
        <ele>1167.631</ele>
        <time>2018-12-29T14:37:20Z</time>
      </trkpt>
      <trkpt lat="37.719240" lon="-119.682450">
        <ele>1167.438</ele>
        <time>2018-12-29T14:37:40Z</time>
      </trkpt>
      <trkpt lat="37.719220" lon="-119.682450">
        <ele>1167.012</ele>
        <time>2018-12-29T14:38:00Z</time>
      </trkpt>
      <trkpt lat="37.719200" lon="-119.682450">
        <ele>1166.657</ele>
        <time>2018-12-29T14:38:20Z</time>
      </trkpt>
      <trkpt lat="37.719180" lon="-119.682460">
        <ele>1166.200</ele>
        <time>2018-12-29T14:38:40Z</time>
      </trkpt>
      <trkpt lat="37.719150" lon="-119.682470">
        <ele>1165.620</ele>
        <time>2018-12-29T14:39:00Z</time>
      </trkpt>
      <trkpt lat="37.719152" lon="-119.682467">
        <ele>1165.608</ele>
        <time>2018-12-29T14:39:20Z</time>
      </trkpt>
      <trkpt lat="37.719160" lon="-119.682280">
        <ele>1166.068</ele>
        <time>2018-12-29T14:39:40Z</time>
      </trkpt>
      <trkpt lat="37.719150" lon="-119.682130">
        <ele>1165.676</ele>
        <time>2018-12-29T14:40:00Z</time>
      </trkpt>
      <trkpt lat="37.719120" lon="-119.681950">
        <ele>1165.071</ele>
        <time>2018-12-29T14:40:20Z</time>
      </trkpt>
      <trkpt lat="37.719040" lon="-119.681610">
        <ele>1163.530</ele>
        <time>2018-12-29T14:40:40Z</time>
      </trkpt>
      <trkpt lat="37.718960" lon="-119.681320">
        <ele>1165.544</ele>
        <time>2018-12-29T14:41:00Z</time>
      </trkpt>
      <trkpt lat="37.718960" lon="-119.681180">
        <ele>1166.220</ele>
        <time>2018-12-29T14:41:20Z</time>
      </trkpt>
      <trkpt lat="37.718960" lon="-119.681080">
        <ele>1166.227</ele>
        <time>2018-12-29T14:41:40Z</time>
      </trkpt>
      <trkpt lat="37.718960" lon="-119.680960">
        <ele>1166.251</ele>
        <time>2018-12-29T14:42:00Z</time>
      </trkpt>
      <trkpt lat="37.718980" lon="-119.680720">
        <ele>1166.563</ele>
        <time>2018-12-29T14:42:20Z</time>
      </trkpt>
      <trkpt lat="37.719000" lon="-119.680530">
        <ele>1166.944</ele>
        <time>2018-12-29T14:42:40Z</time>
      </trkpt>
      <trkpt lat="37.719040" lon="-119.680140">
        <ele>1176.718</ele>
        <time>2018-12-29T14:43:00Z</time>
      </trkpt>
      <trkpt lat="37.719050" lon="-119.680020">
        <ele>1182.408</ele>
        <time>2018-12-29T14:43:20Z</time>
      </trkpt>
      <trkpt lat="37.719050" lon="-119.679880">
        <ele>1187.369</ele>
        <time>2018-12-29T14:43:40Z</time>
      </trkpt>
      <trkpt lat="37.719010" lon="-119.679630">
        <ele>1191.617</ele>
        <time>2018-12-29T14:44:00Z</time>
      </trkpt>
      <trkpt lat="37.718930" lon="-119.679320">
        <ele>1191.712</ele>
        <time>2018-12-29T14:44:20Z</time>
      </trkpt>
      <trkpt lat="37.718850" lon="-119.679080">
        <ele>1185.721</ele>
        <time>2018-12-29T14:44:40Z</time>
      </trkpt>
      <trkpt lat="37.718800" lon="-119.678890">
        <ele>1181.975</ele>
        <time>2018-12-29T14:45:00Z</time>
      </trkpt>
      <trkpt lat="37.718790" lon="-119.678770">
        <ele>1181.491</ele>
        <time>2018-12-29T14:45:20Z</time>
      </trkpt>
      <trkpt lat="37.718770" lon="-119.678580">
        <ele>1179.768</ele>
        <time>2018-12-29T14:45:40Z</time>
      </trkpt>
      <trkpt lat="37.718770" lon="-119.678320">
        <ele>1179.432</ele>
        <time>2018-12-29T14:46:00Z</time>
      </trkpt>
      <trkpt lat="37.718790" lon="-119.677940">
        <ele>1179.971</ele>
        <time>2018-12-29T14:46:20Z</time>
      </trkpt>
      <trkpt lat="37.718840" lon="-119.677090">
        <ele>1180.341</ele>
        <time>2018-12-29T14:46:40Z</time>
      </trkpt>
      <trkpt lat="37.718850" lon="-119.676830">
        <ele>1181.515</ele>
        <time>2018-12-29T14:47:00Z</time>
      </trkpt>
      <trkpt lat="37.718850" lon="-119.676610">
        <ele>1182.308</ele>
        <time>2018-12-29T14:47:20Z</time>
      </trkpt>
      <trkpt lat="37.718850" lon="-119.676450">
        <ele>1182.870</ele>
        <time>2018-12-29T14:47:40Z</time>
      </trkpt>
      <trkpt lat="37.718820" lon="-119.676310">
        <ele>1182.118</ele>
        <time>2018-12-29T14:48:00Z</time>
      </trkpt>
      <trkpt lat="37.718800" lon="-119.676180">
        <ele>1181.683</ele>
        <time>2018-12-29T14:48:20Z</time>
      </trkpt>
      <trkpt lat="37.718760" lon="-119.676060">
        <ele>1180.532</ele>
        <time>2018-12-29T14:48:40Z</time>
      </trkpt>
      <trkpt lat="37.718660" lon="-119.675750">
        <ele>1179.736</ele>
        <time>2018-12-29T14:49:00Z</time>
      </trkpt>
      <trkpt lat="37.718460" lon="-119.675260">
        <ele>1180.872</ele>
        <time>2018-12-29T14:49:20Z</time>
      </trkpt>
      <trkpt lat="37.718330" lon="-119.674950">
        <ele>1181.069</ele>
        <time>2018-12-29T14:49:40Z</time>
      </trkpt>
      <trkpt lat="37.718230" lon="-119.674700">
        <ele>1180.993</ele>
        <time>2018-12-29T14:50:00Z</time>
      </trkpt>
      <trkpt lat="37.718160" lon="-119.674530">
        <ele>1180.615</ele>
        <time>2018-12-29T14:50:20Z</time>
      </trkpt>
      <trkpt lat="37.718100" lon="-119.674360">
        <ele>1180.465</ele>
        <time>2018-12-29T14:50:40Z</time>
      </trkpt>
      <trkpt lat="37.718040" lon="-119.674190">
        <ele>1180.111</ele>
        <time>2018-12-29T14:51:00Z</time>
      </trkpt>
      <trkpt lat="37.717960" lon="-119.673940">
        <ele>1179.508</ele>
        <time>2018-12-29T14:51:20Z</time>
      </trkpt>
      <trkpt lat="37.717920" lon="-119.673830">
        <ele>1178.994</ele>
        <time>2018-12-29T14:51:40Z</time>
      </trkpt>
      <trkpt lat="37.717890" lon="-119.673690">
        <ele>1178.472</ele>
        <time>2018-12-29T14:52:00Z</time>
      </trkpt>
      <trkpt lat="37.717880" lon="-119.673580">
        <ele>1178.167</ele>
        <time>2018-12-29T14:52:20Z</time>
      </trkpt>
      <trkpt lat="37.717880" lon="-119.673410">
        <ele>1177.926</ele>
        <time>2018-12-29T14:52:40Z</time>
      </trkpt>
      <trkpt lat="37.717910" lon="-119.673220">
        <ele>1177.940</ele>
        <time>2018-12-29T14:53:00Z</time>
      </trkpt>
      <trkpt lat="37.717930" lon="-119.673050">
        <ele>1178.056</ele>
        <time>2018-12-29T14:53:20Z</time>
      </trkpt>
      <trkpt lat="37.718090" lon="-119.672430">
        <ele>1179.393</ele>
        <time>2018-12-29T14:53:40Z</time>
      </trkpt>
      <trkpt lat="37.718150" lon="-119.672050">
        <ele>1179.387</ele>
        <time>2018-12-29T14:54:00Z</time>
      </trkpt>
      <trkpt lat="37.718180" lon="-119.671800">
        <ele>1179.167</ele>
        <time>2018-12-29T14:54:20Z</time>
      </trkpt>
      <trkpt lat="37.718190" lon="-119.671470">
        <ele>1178.781</ele>
        <time>2018-12-29T14:54:40Z</time>
      </trkpt>
      <trkpt lat="37.718210" lon="-119.671080">
        <ele>1178.819</ele>
        <time>2018-12-29T14:55:00Z</time>
      </trkpt>
      <trkpt lat="37.718220" lon="-119.670880">
        <ele>1179.008</ele>
        <time>2018-12-29T14:55:20Z</time>
      </trkpt>
      <trkpt lat="37.718210" lon="-119.670700">
        <ele>1179.129</ele>
        <time>2018-12-29T14:55:40Z</time>
      </trkpt>
      <trkpt lat="37.718190" lon="-119.670450">
        <ele>1179.577</ele>
        <time>2018-12-29T14:56:00Z</time>
      </trkpt>
      <trkpt lat="37.718140" lon="-119.670200">
        <ele>1179.612</ele>
        <time>2018-12-29T14:56:20Z</time>
      </trkpt>
      <trkpt lat="37.718040" lon="-119.669930">
        <ele>1179.351</ele>
        <time>2018-12-29T14:56:40Z</time>
      </trkpt>
      <trkpt lat="37.717950" lon="-119.669710">
        <ele>1179.145</ele>
        <time>2018-12-29T14:57:00Z</time>
      </trkpt>
      <trkpt lat="37.717810" lon="-119.669370">
        <ele>1179.491</ele>
        <time>2018-12-29T14:57:20Z</time>
      </trkpt>
      <trkpt lat="37.717620" lon="-119.668910">
        <ele>1180.138</ele>
        <time>2018-12-29T14:57:40Z</time>
      </trkpt>
      <trkpt lat="37.717530" lon="-119.668650">
        <ele>1180.512</ele>
        <time>2018-12-29T14:58:00Z</time>
      </trkpt>
      <trkpt lat="37.717500" lon="-119.668590">
        <ele>1180.548</ele>
        <time>2018-12-29T14:58:20Z</time>
      </trkpt>
      <trkpt lat="37.717430" lon="-119.668340">
        <ele>1180.961</ele>
        <time>2018-12-29T14:58:40Z</time>
      </trkpt>
      <trkpt lat="37.717330" lon="-119.668050">
        <ele>1181.017</ele>
        <time>2018-12-29T14:59:00Z</time>
      </trkpt>
      <trkpt lat="37.717240" lon="-119.667810">
        <ele>1180.808</ele>
        <time>2018-12-29T14:59:20Z</time>
      </trkpt>
      <trkpt lat="37.717200" lon="-119.667530">
        <ele>1181.167</ele>
        <time>2018-12-29T14:59:40Z</time>
      </trkpt>
      <trkpt lat="37.717140" lon="-119.667110">
        <ele>1181.435</ele>
        <time>2018-12-29T15:00:00Z</time>
      </trkpt>
      <trkpt lat="37.717080" lon="-119.666780">
        <ele>1181.490</ele>
        <time>2018-12-29T15:00:20Z</time>
      </trkpt>
      <trkpt lat="37.717050" lon="-119.666600">
        <ele>1181.529</ele>
        <time>2018-12-29T15:00:40Z</time>
      </trkpt>
      <trkpt lat="37.717020" lon="-119.666480">
        <ele>1181.563</ele>
        <time>2018-12-29T15:01:00Z</time>
      </trkpt>
      <trkpt lat="37.717016" lon="-119.666480">
        <ele>1181.589</ele>
        <time>2018-12-29T15:01:20Z</time>
      </trkpt>
      <trkpt lat="37.716930" lon="-119.666380">
        <ele>1180.956</ele>
        <time>2018-12-29T15:01:40Z</time>
      </trkpt>
      <trkpt lat="37.716890" lon="-119.666330">
        <ele>1180.740</ele>
        <time>2018-12-29T15:02:00Z</time>
      </trkpt>
      <trkpt lat="37.716850" lon="-119.666300">
        <ele>1180.424</ele>
        <time>2018-12-29T15:02:20Z</time>
      </trkpt>
      <trkpt lat="37.716770" lon="-119.666250">
        <ele>1179.804</ele>
        <time>2018-12-29T15:02:40Z</time>
      </trkpt>
      <trkpt lat="37.716520" lon="-119.666190">
        <ele>1178.314</ele>
        <time>2018-12-29T15:03:00Z</time>
      </trkpt>
      <trkpt lat="37.716450" lon="-119.666180">
        <ele>1180.108</ele>
        <time>2018-12-29T15:03:20Z</time>
      </trkpt>
      <trkpt lat="37.716350" lon="-119.666140">
        <ele>1182.665</ele>
        <time>2018-12-29T15:03:40Z</time>
      </trkpt>
      <trkpt lat="37.716280" lon="-119.666090">
        <ele>1184.233</ele>
        <time>2018-12-29T15:04:00Z</time>
      </trkpt>
      <trkpt lat="37.716240" lon="-119.666040">
        <ele>1184.988</ele>
        <time>2018-12-29T15:04:20Z</time>
      </trkpt>
      <trkpt lat="37.716190" lon="-119.665970">
        <ele>1185.317</ele>
        <time>2018-12-29T15:04:40Z</time>
      </trkpt>
      <trkpt lat="37.716170" lon="-119.665890">
        <ele>1185.161</ele>
        <time>2018-12-29T15:05:00Z</time>
      </trkpt>
      <trkpt lat="37.716110" lon="-119.665740">
        <ele>1185.147</ele>
        <time>2018-12-29T15:05:20Z</time>
      </trkpt>
      <trkpt lat="37.716070" lon="-119.665640">
        <ele>1185.034</ele>
        <time>2018-12-29T15:05:40Z</time>
      </trkpt>
      <trkpt lat="37.716020" lon="-119.665540">
        <ele>1185.088</ele>
        <time>2018-12-29T15:06:00Z</time>
      </trkpt>
      <trkpt lat="37.715950" lon="-119.665450">
        <ele>1185.262</ele>
        <time>2018-12-29T15:06:20Z</time>
      </trkpt>
      <trkpt lat="37.715900" lon="-119.665400">
        <ele>1185.083</ele>
        <time>2018-12-29T15:06:40Z</time>
      </trkpt>
      <trkpt lat="37.715810" lon="-119.665330">
        <ele>1184.511</ele>
        <time>2018-12-29T15:07:00Z</time>
      </trkpt>
      <trkpt lat="37.715710" lon="-119.665270">
        <ele>1184.308</ele>
        <time>2018-12-29T15:07:20Z</time>
      </trkpt>
      <trkpt lat="37.715560" lon="-119.665190">
        <ele>1184.349</ele>
        <time>2018-12-29T15:07:40Z</time>
      </trkpt>
      <trkpt lat="37.715360" lon="-119.665090">
        <ele>1184.677</ele>
        <time>2018-12-29T15:08:00Z</time>
      </trkpt>
      <trkpt lat="37.715220" lon="-119.665000">
        <ele>1184.932</ele>
        <time>2018-12-29T15:08:20Z</time>
      </trkpt>
      <trkpt lat="37.715060" lon="-119.664870">
        <ele>1185.291</ele>
        <time>2018-12-29T15:08:40Z</time>
      </trkpt>
      <trkpt lat="37.714970" lon="-119.664800">
        <ele>1186.085</ele>
        <time>2018-12-29T15:09:00Z</time>
      </trkpt>
      <trkpt lat="37.714910" lon="-119.664740">
        <ele>1186.361</ele>
        <time>2018-12-29T15:09:20Z</time>
      </trkpt>
      <trkpt lat="37.714810" lon="-119.664620">
        <ele>1187.028</ele>
        <time>2018-12-29T15:09:40Z</time>
      </trkpt>
      <trkpt lat="37.714740" lon="-119.664520">
        <ele>1188.172</ele>
        <time>2018-12-29T15:10:00Z</time>
      </trkpt>
      <trkpt lat="37.714690" lon="-119.664430">
        <ele>1189.069</ele>
        <time>2018-12-29T15:10:20Z</time>
      </trkpt>
      <trkpt lat="37.714650" lon="-119.664300">
        <ele>1189.404</ele>
        <time>2018-12-29T15:10:40Z</time>
      </trkpt>
      <trkpt lat="37.714640" lon="-119.664220">
        <ele>1189.724</ele>
        <time>2018-12-29T15:11:00Z</time>
      </trkpt>
      <trkpt lat="37.714640" lon="-119.664070">
        <ele>1189.808</ele>
        <time>2018-12-29T15:11:20Z</time>
      </trkpt>
      <trkpt lat="37.714680" lon="-119.663760">
        <ele>1190.149</ele>
        <time>2018-12-29T15:11:40Z</time>
      </trkpt>
      <trkpt lat="37.714770" lon="-119.663240">
        <ele>1190.677</ele>
        <time>2018-12-29T15:12:00Z</time>
      </trkpt>
      <trkpt lat="37.714870" lon="-119.662710">
        <ele>1191.322</ele>
        <time>2018-12-29T15:12:20Z</time>
      </trkpt>
      <trkpt lat="37.714950" lon="-119.662450">
        <ele>1191.931</ele>
        <time>2018-12-29T15:12:40Z</time>
      </trkpt>
      <trkpt lat="37.715040" lon="-119.662210">
        <ele>1192.325</ele>
        <time>2018-12-29T15:13:00Z</time>
      </trkpt>
      <trkpt lat="37.715090" lon="-119.661960">
        <ele>1193.021</ele>
        <time>2018-12-29T15:13:20Z</time>
      </trkpt>
      <trkpt lat="37.715100" lon="-119.661600">
        <ele>1194.148</ele>
        <time>2018-12-29T15:13:40Z</time>
      </trkpt>
      <trkpt lat="37.715170" lon="-119.660830">
        <ele>1194.072</ele>
        <time>2018-12-29T15:14:00Z</time>
      </trkpt>
      <trkpt lat="37.715200" lon="-119.660720">
        <ele>1193.926</ele>
        <time>2018-12-29T15:14:20Z</time>
      </trkpt>
      <trkpt lat="37.715240" lon="-119.660610">
        <ele>1193.747</ele>
        <time>2018-12-29T15:14:40Z</time>
      </trkpt>
      <trkpt lat="37.715410" lon="-119.660280">
        <ele>1192.711</ele>
        <time>2018-12-29T15:15:00Z</time>
      </trkpt>
      <trkpt lat="37.715830" lon="-119.659560">
        <ele>1192.708</ele>
        <time>2018-12-29T15:15:20Z</time>
      </trkpt>
      <trkpt lat="37.716190" lon="-119.658960">
        <ele>1193.445</ele>
        <time>2018-12-29T15:15:40Z</time>
      </trkpt>
      <trkpt lat="37.716410" lon="-119.658540">
        <ele>1193.253</ele>
        <time>2018-12-29T15:16:00Z</time>
      </trkpt>
      <trkpt lat="37.716520" lon="-119.658250">
        <ele>1193.428</ele>
        <time>2018-12-29T15:16:20Z</time>
      </trkpt>
      <trkpt lat="37.716620" lon="-119.657960">
        <ele>1193.677</ele>
        <time>2018-12-29T15:16:40Z</time>
      </trkpt>
      <trkpt lat="37.716680" lon="-119.657690">
        <ele>1194.031</ele>
        <time>2018-12-29T15:17:00Z</time>
      </trkpt>
      <trkpt lat="37.716700" lon="-119.657400">
        <ele>1194.927</ele>
        <time>2018-12-29T15:17:20Z</time>
      </trkpt>
      <trkpt lat="37.716690" lon="-119.657110">
        <ele>1195.884</ele>
        <time>2018-12-29T15:17:40Z</time>
      </trkpt>
      <trkpt lat="37.716670" lon="-119.656810">
        <ele>1198.268</ele>
        <time>2018-12-29T15:18:00Z</time>
      </trkpt>
      <trkpt lat="37.716700" lon="-119.656600">
        <ele>1199.054</ele>
        <time>2018-12-29T15:18:20Z</time>
      </trkpt>
      <trkpt lat="37.716760" lon="-119.656310">
        <ele>1199.256</ele>
        <time>2018-12-29T15:18:40Z</time>
      </trkpt>
      <trkpt lat="37.716860" lon="-119.655950">
        <ele>1197.611</ele>
        <time>2018-12-29T15:19:00Z</time>
      </trkpt>
      <trkpt lat="37.716980" lon="-119.655390">
        <ele>1193.008</ele>
        <time>2018-12-29T15:19:20Z</time>
      </trkpt>
      <trkpt lat="37.717120" lon="-119.654510">
        <ele>1193.338</ele>
        <time>2018-12-29T15:19:40Z</time>
      </trkpt>
      <trkpt lat="37.717220" lon="-119.653590">
        <ele>1194.166</ele>
        <time>2018-12-29T15:20:00Z</time>
      </trkpt>
      <trkpt lat="37.717350" lon="-119.652830">
        <ele>1194.891</ele>
        <time>2018-12-29T15:20:20Z</time>
      </trkpt>
      <trkpt lat="37.717480" lon="-119.652360">
        <ele>1195.330</ele>
        <time>2018-12-29T15:20:40Z</time>
      </trkpt>
      <trkpt lat="37.717870" lon="-119.651680">
        <ele>1200.974</ele>
        <time>2018-12-29T15:21:00Z</time>
      </trkpt>
      <trkpt lat="37.718000" lon="-119.651540">
        <ele>1201.810</ele>
        <time>2018-12-29T15:21:20Z</time>
      </trkpt>
      <trkpt lat="37.718610" lon="-119.651010">
        <ele>1199.137</ele>
        <time>2018-12-29T15:21:40Z</time>
      </trkpt>
      <trkpt lat="37.718940" lon="-119.650650">
        <ele>1201.141</ele>
        <time>2018-12-29T15:22:00Z</time>
      </trkpt>
      <trkpt lat="37.719180" lon="-119.650440">
        <ele>1201.127</ele>
        <time>2018-12-29T15:22:20Z</time>
      </trkpt>
      <trkpt lat="37.719340" lon="-119.650290">
        <ele>1199.468</ele>
        <time>2018-12-29T15:22:40Z</time>
      </trkpt>
      <trkpt lat="37.719580" lon="-119.649990">
        <ele>1199.614</ele>
        <time>2018-12-29T15:23:00Z</time>
      </trkpt>
      <trkpt lat="37.719750" lon="-119.649740">
        <ele>1200.108</ele>
        <time>2018-12-29T15:23:20Z</time>
      </trkpt>
      <trkpt lat="37.719890" lon="-119.649530">
        <ele>1200.485</ele>
        <time>2018-12-29T15:23:40Z</time>
      </trkpt>
      <trkpt lat="37.720130" lon="-119.649150">
        <ele>1200.993</ele>
        <time>2018-12-29T15:24:00Z</time>
      </trkpt>
      <trkpt lat="37.720380" lon="-119.648720">
        <ele>1201.228</ele>
        <time>2018-12-29T15:24:20Z</time>
      </trkpt>
      <trkpt lat="37.720430" lon="-119.648630">
        <ele>1201.487</ele>
        <time>2018-12-29T15:24:40Z</time>
      </trkpt>
      <trkpt lat="37.720790" lon="-119.647950">
        <ele>1201.291</ele>
        <time>2018-12-29T15:25:00Z</time>
      </trkpt>
      <trkpt lat="37.720830" lon="-119.647870">
        <ele>1201.157</ele>
        <time>2018-12-29T15:25:20Z</time>
      </trkpt>
      <trkpt lat="37.720890" lon="-119.647760">
        <ele>1200.844</ele>
        <time>2018-12-29T15:25:40Z</time>
      </trkpt>
      <trkpt lat="37.720960" lon="-119.647530">
        <ele>1200.998</ele>
        <time>2018-12-29T15:26:00Z</time>
      </trkpt>
      <trkpt lat="37.720970" lon="-119.647480">
        <ele>1201.113</ele>
        <time>2018-12-29T15:26:20Z</time>
      </trkpt>
      <trkpt lat="37.721020" lon="-119.647220">
        <ele>1202.043</ele>
        <time>2018-12-29T15:26:40Z</time>
      </trkpt>
      <trkpt lat="37.721030" lon="-119.646950">
        <ele>1202.907</ele>
        <time>2018-12-29T15:27:00Z</time>
      </trkpt>
      <trkpt lat="37.721010" lon="-119.646740">
        <ele>1203.408</ele>
        <time>2018-12-29T15:27:20Z</time>
      </trkpt>
      <trkpt lat="37.720970" lon="-119.646480">
        <ele>1203.584</ele>
        <time>2018-12-29T15:27:40Z</time>
      </trkpt>
      <trkpt lat="37.720940" lon="-119.646240">
        <ele>1203.942</ele>
        <time>2018-12-29T15:28:00Z</time>
      </trkpt>
      <trkpt lat="37.720930" lon="-119.645950">
        <ele>1204.847</ele>
        <time>2018-12-29T15:28:20Z</time>
      </trkpt>
      <trkpt lat="37.720930" lon="-119.645710">
        <ele>1203.996</ele>
        <time>2018-12-29T15:28:40Z</time>
      </trkpt>
      <trkpt lat="37.720930" lon="-119.645490">
        <ele>1203.780</ele>
        <time>2018-12-29T15:29:00Z</time>
      </trkpt>
      <trkpt lat="37.720980" lon="-119.645130">
        <ele>1204.226</ele>
        <time>2018-12-29T15:29:20Z</time>
      </trkpt>
      <trkpt lat="37.721050" lon="-119.644730">
        <ele>1205.143</ele>
        <time>2018-12-29T15:29:40Z</time>
      </trkpt>
      <trkpt lat="37.721110" lon="-119.644440">
        <ele>1205.297</ele>
        <time>2018-12-29T15:30:00Z</time>
      </trkpt>
      <trkpt lat="37.721180" lon="-119.644150">
        <ele>1205.532</ele>
        <time>2018-12-29T15:30:20Z</time>
      </trkpt>
      <trkpt lat="37.721250" lon="-119.643910">
        <ele>1204.992</ele>
        <time>2018-12-29T15:30:40Z</time>
      </trkpt>
      <trkpt lat="37.721420" lon="-119.643450">
        <ele>1206.511</ele>
        <time>2018-12-29T15:31:00Z</time>
      </trkpt>
      <trkpt lat="37.721630" lon="-119.643020">
        <ele>1206.608</ele>
        <time>2018-12-29T15:31:20Z</time>
      </trkpt>
      <trkpt lat="37.721760" lon="-119.642770">
        <ele>1206.426</ele>
        <time>2018-12-29T15:31:40Z</time>
      </trkpt>
      <trkpt lat="37.721810" lon="-119.642620">
        <ele>1206.414</ele>
        <time>2018-12-29T15:32:00Z</time>
      </trkpt>
      <trkpt lat="37.721850" lon="-119.642430">
        <ele>1206.529</ele>
        <time>2018-12-29T15:32:20Z</time>
      </trkpt>
      <trkpt lat="37.721870" lon="-119.642250">
        <ele>1206.598</ele>
        <time>2018-12-29T15:32:40Z</time>
      </trkpt>
      <trkpt lat="37.721850" lon="-119.642090">
        <ele>1206.612</ele>
        <time>2018-12-29T15:33:00Z</time>
      </trkpt>
      <trkpt lat="37.721820" lon="-119.641930">
        <ele>1207.278</ele>
        <time>2018-12-29T15:33:20Z</time>
      </trkpt>
      <trkpt lat="37.721740" lon="-119.641630">
        <ele>1208.315</ele>
        <time>2018-12-29T15:33:40Z</time>
      </trkpt>
      <trkpt lat="37.721660" lon="-119.641400">
        <ele>1209.389</ele>
        <time>2018-12-29T15:34:00Z</time>
      </trkpt>
      <trkpt lat="37.721520" lon="-119.641030">
        <ele>1211.037</ele>
        <time>2018-12-29T15:34:20Z</time>
      </trkpt>
      <trkpt lat="37.721400" lon="-119.640660">
        <ele>1212.549</ele>
        <time>2018-12-29T15:34:40Z</time>
      </trkpt>
      <trkpt lat="37.721230" lon="-119.640160">
        <ele>1212.813</ele>
        <time>2018-12-29T15:35:00Z</time>
      </trkpt>
      <trkpt lat="37.721030" lon="-119.639270">
        <ele>1211.308</ele>
        <time>2018-12-29T15:35:20Z</time>
      </trkpt>
      <trkpt lat="37.720860" lon="-119.638250">
        <ele>1208.046</ele>
        <time>2018-12-29T15:35:40Z</time>
      </trkpt>
      <trkpt lat="37.720740" lon="-119.637470">
        <ele>1207.184</ele>
        <time>2018-12-29T15:36:00Z</time>
      </trkpt>
      <trkpt lat="37.720620" lon="-119.636830">
        <ele>1206.689</ele>
        <time>2018-12-29T15:36:20Z</time>
      </trkpt>
      <trkpt lat="37.720560" lon="-119.636580">
        <ele>1206.648</ele>
        <time>2018-12-29T15:36:40Z</time>
      </trkpt>
      <trkpt lat="37.720490" lon="-119.636350">
        <ele>1206.462</ele>
        <time>2018-12-29T15:37:00Z</time>
      </trkpt>
      <trkpt lat="37.720410" lon="-119.636090">
        <ele>1206.018</ele>
        <time>2018-12-29T15:37:20Z</time>
      </trkpt>
      <trkpt lat="37.720290" lon="-119.635740">
        <ele>1207.315</ele>
        <time>2018-12-29T15:37:40Z</time>
      </trkpt>
      <trkpt lat="37.720190" lon="-119.635380">
        <ele>1207.269</ele>
        <time>2018-12-29T15:38:00Z</time>
      </trkpt>
      <trkpt lat="37.720110" lon="-119.634940">
        <ele>1212.083</ele>
        <time>2018-12-29T15:38:20Z</time>
      </trkpt>
      <trkpt lat="37.720040" lon="-119.634530">
        <ele>1213.925</ele>
        <time>2018-12-29T15:38:40Z</time>
      </trkpt>
      <trkpt lat="37.719880" lon="-119.633410">
        <ele>1212.317</ele>
        <time>2018-12-29T15:39:00Z</time>
      </trkpt>
      <trkpt lat="37.719830" lon="-119.633090">
        <ele>1212.508</ele>
        <time>2018-12-29T15:39:20Z</time>
      </trkpt>
      <trkpt lat="37.719810" lon="-119.632890">
        <ele>1213.351</ele>
        <time>2018-12-29T15:39:40Z</time>
      </trkpt>
      <trkpt lat="37.719830" lon="-119.632700">
        <ele>1214.179</ele>
        <time>2018-12-29T15:40:00Z</time>
      </trkpt>
      <trkpt lat="37.719880" lon="-119.632340">
        <ele>1215.524</ele>
        <time>2018-12-29T15:40:20Z</time>
      </trkpt>
      <trkpt lat="37.720030" lon="-119.631690">
        <ele>1215.443</ele>
        <time>2018-12-29T15:40:40Z</time>
      </trkpt>
      <trkpt lat="37.720170" lon="-119.631180">
        <ele>1213.827</ele>
        <time>2018-12-29T15:41:00Z</time>
      </trkpt>
      <trkpt lat="37.720750" lon="-119.628920">
        <ele>1215.553</ele>
        <time>2018-12-29T15:41:20Z</time>
      </trkpt>
      <trkpt lat="37.720810" lon="-119.628620">
        <ele>1215.680</ele>
        <time>2018-12-29T15:41:40Z</time>
      </trkpt>
      <trkpt lat="37.721040" lon="-119.627350">
        <ele>1215.114</ele>
        <time>2018-12-29T15:42:00Z</time>
      </trkpt>
      <trkpt lat="37.721310" lon="-119.626190">
        <ele>1213.093</ele>
        <time>2018-12-29T15:42:20Z</time>
      </trkpt>
      <trkpt lat="37.721540" lon="-119.625070">
        <ele>1212.365</ele>
        <time>2018-12-29T15:42:40Z</time>
      </trkpt>
      <trkpt lat="37.721560" lon="-119.625000">
        <ele>1212.421</ele>
        <time>2018-12-29T15:43:00Z</time>
      </trkpt>
      <trkpt lat="37.721770" lon="-119.624010">
        <ele>1211.508</ele>
        <time>2018-12-29T15:43:20Z</time>
      </trkpt>
      <trkpt lat="37.722030" lon="-119.623080">
        <ele>1212.162</ele>
        <time>2018-12-29T15:43:40Z</time>
      </trkpt>
      <trkpt lat="37.722160" lon="-119.622570">
        <ele>1212.090</ele>
        <time>2018-12-29T15:44:00Z</time>
      </trkpt>
      <trkpt lat="37.722270" lon="-119.622160">
        <ele>1211.695</ele>
        <time>2018-12-29T15:44:20Z</time>
      </trkpt>
      <trkpt lat="37.722380" lon="-119.621600">
        <ele>1210.674</ele>
        <time>2018-12-29T15:44:40Z</time>
      </trkpt>
      <trkpt lat="37.722470" lon="-119.621160">
        <ele>1210.198</ele>
        <time>2018-12-29T15:45:00Z</time>
      </trkpt>
      <trkpt lat="37.722580" lon="-119.620720">
        <ele>1210.384</ele>
        <time>2018-12-29T15:45:20Z</time>
      </trkpt>
      <trkpt lat="37.722690" lon="-119.620400">
        <ele>1210.731</ele>
        <time>2018-12-29T15:45:40Z</time>
      </trkpt>
      <trkpt lat="37.722860" lon="-119.619990">
        <ele>1211.795</ele>
        <time>2018-12-29T15:46:00Z</time>
      </trkpt>
      <trkpt lat="37.723030" lon="-119.619640">
        <ele>1212.587</ele>
        <time>2018-12-29T15:46:20Z</time>
      </trkpt>
      <trkpt lat="37.723220" lon="-119.619300">
        <ele>1213.242</ele>
        <time>2018-12-29T15:46:40Z</time>
      </trkpt>
      <trkpt lat="37.723270" lon="-119.619230">
        <ele>1213.226</ele>
        <time>2018-12-29T15:47:00Z</time>
      </trkpt>
      <trkpt lat="37.723940" lon="-119.618190">
        <ele>1212.508</ele>
        <time>2018-12-29T15:47:20Z</time>
      </trkpt>
      <trkpt lat="37.724180" lon="-119.617730">
        <ele>1211.911</ele>
        <time>2018-12-29T15:47:40Z</time>
      </trkpt>
      <trkpt lat="37.724460" lon="-119.616970">
        <ele>1210.889</ele>
        <time>2018-12-29T15:48:00Z</time>
      </trkpt>
      <trkpt lat="37.724610" lon="-119.616600">
        <ele>1210.254</ele>
        <time>2018-12-29T15:48:20Z</time>
      </trkpt>
      <trkpt lat="37.724900" lon="-119.615920">
        <ele>1210.813</ele>
        <time>2018-12-29T15:48:40Z</time>
      </trkpt>
      <trkpt lat="37.725150" lon="-119.615280">
        <ele>1210.987</ele>
        <time>2018-12-29T15:49:00Z</time>
      </trkpt>
      <trkpt lat="37.725340" lon="-119.614650">
        <ele>1210.893</ele>
        <time>2018-12-29T15:49:20Z</time>
      </trkpt>
      <trkpt lat="37.725520" lon="-119.613980">
        <ele>1210.460</ele>
        <time>2018-12-29T15:49:40Z</time>
      </trkpt>
      <trkpt lat="37.725530" lon="-119.613940">
        <ele>1210.424</ele>
        <time>2018-12-29T15:50:00Z</time>
      </trkpt>
      <trkpt lat="37.725620" lon="-119.613610">
        <ele>1210.039</ele>
        <time>2018-12-29T15:50:20Z</time>
      </trkpt>
      <trkpt lat="37.725770" lon="-119.612980">
        <ele>1209.401</ele>
        <time>2018-12-29T15:50:40Z</time>
      </trkpt>
      <trkpt lat="37.725840" lon="-119.612560">
        <ele>1209.521</ele>
        <time>2018-12-29T15:51:00Z</time>
      </trkpt>
      <trkpt lat="37.725890" lon="-119.612160">
        <ele>1209.408</ele>
        <time>2018-12-29T15:51:20Z</time>
      </trkpt>
      <trkpt lat="37.725910" lon="-119.611970">
        <ele>1209.596</ele>
        <time>2018-12-29T15:51:40Z</time>
      </trkpt>
      <trkpt lat="37.725940" lon="-119.611800">
        <ele>1209.524</ele>
        <time>2018-12-29T15:52:00Z</time>
      </trkpt>
      <trkpt lat="37.726020" lon="-119.611490">
        <ele>1209.329</ele>
        <time>2018-12-29T15:52:20Z</time>
      </trkpt>
      <trkpt lat="37.726150" lon="-119.611190">
        <ele>1208.638</ele>
        <time>2018-12-29T15:52:40Z</time>
      </trkpt>
      <trkpt lat="37.726220" lon="-119.611030">
        <ele>1208.052</ele>
        <time>2018-12-29T15:53:00Z</time>
      </trkpt>
      <trkpt lat="37.726430" lon="-119.610560">
        <ele>1207.058</ele>
        <time>2018-12-29T15:53:20Z</time>
      </trkpt>
      <trkpt lat="37.726530" lon="-119.610230">
        <ele>1206.845</ele>
        <time>2018-12-29T15:53:40Z</time>
      </trkpt>
      <trkpt lat="37.726620" lon="-119.609830">
        <ele>1207.169</ele>
        <time>2018-12-29T15:54:00Z</time>
      </trkpt>
      <trkpt lat="37.726670" lon="-119.609660">
        <ele>1207.264</ele>
        <time>2018-12-29T15:54:20Z</time>
      </trkpt>
      <trkpt lat="37.726710" lon="-119.609510">
        <ele>1207.206</ele>
        <time>2018-12-29T15:54:40Z</time>
      </trkpt>
      <trkpt lat="37.726740" lon="-119.609420">
        <ele>1207.316</ele>
        <time>2018-12-29T15:55:00Z</time>
      </trkpt>
      <trkpt lat="37.726780" lon="-119.609330">
        <ele>1207.308</ele>
        <time>2018-12-29T15:55:20Z</time>
      </trkpt>
      <trkpt lat="37.726840" lon="-119.609210">
        <ele>1207.419</ele>
        <time>2018-12-29T15:55:40Z</time>
      </trkpt>
      <trkpt lat="37.726890" lon="-119.609120">
        <ele>1207.617</ele>
        <time>2018-12-29T15:56:00Z</time>
      </trkpt>
      <trkpt lat="37.727120" lon="-119.608710">
        <ele>1208.272</ele>
        <time>2018-12-29T15:56:20Z</time>
      </trkpt>
      <trkpt lat="37.727400" lon="-119.608180">
        <ele>1209.711</ele>
        <time>2018-12-29T15:56:40Z</time>
      </trkpt>
      <trkpt lat="37.727760" lon="-119.607520">
        <ele>1211.325</ele>
        <time>2018-12-29T15:57:00Z</time>
      </trkpt>
      <trkpt lat="37.727880" lon="-119.607320">
        <ele>1211.951</ele>
        <time>2018-12-29T15:57:20Z</time>
      </trkpt>
      <trkpt lat="37.727970" lon="-119.607200">
        <ele>1212.148</ele>
        <time>2018-12-29T15:57:40Z</time>
      </trkpt>
      <trkpt lat="37.728050" lon="-119.607090">
        <ele>1212.392</ele>
        <time>2018-12-29T15:58:00Z</time>
      </trkpt>
      <trkpt lat="37.728260" lon="-119.606850">
        <ele>1212.891</ele>
        <time>2018-12-29T15:58:20Z</time>
      </trkpt>
      <trkpt lat="37.728440" lon="-119.606690">
        <ele>1213.381</ele>
        <time>2018-12-29T15:58:40Z</time>
      </trkpt>
      <trkpt lat="37.728590" lon="-119.606590">
        <ele>1213.519</ele>
        <time>2018-12-29T15:59:00Z</time>
      </trkpt>
      <trkpt lat="37.728850" lon="-119.606440">
        <ele>1213.708</ele>
        <time>2018-12-29T15:59:20Z</time>
      </trkpt>
      <trkpt lat="37.729290" lon="-119.606250">
        <ele>1213.292</ele>
        <time>2018-12-29T15:59:40Z</time>
      </trkpt>
      <trkpt lat="37.729610" lon="-119.606070">
        <ele>1213.210</ele>
        <time>2018-12-29T16:00:00Z</time>
      </trkpt>
      <trkpt lat="37.729990" lon="-119.605850">
        <ele>1213.235</ele>
        <time>2018-12-29T16:00:20Z</time>
      </trkpt>
      <trkpt lat="37.730110" lon="-119.605760">
        <ele>1213.264</ele>
        <time>2018-12-29T16:00:40Z</time>
      </trkpt>
      <trkpt lat="37.730980" lon="-119.605160">
        <ele>1213.538</ele>
        <time>2018-12-29T16:01:00Z</time>
      </trkpt>
      <trkpt lat="37.731480" lon="-119.604770">
        <ele>1213.584</ele>
        <time>2018-12-29T16:01:20Z</time>
      </trkpt>
      <trkpt lat="37.731890" lon="-119.604460">
        <ele>1212.611</ele>
        <time>2018-12-29T16:01:40Z</time>
      </trkpt>
      <trkpt lat="37.732200" lon="-119.604160">
        <ele>1211.975</ele>
        <time>2018-12-29T16:02:00Z</time>
      </trkpt>
      <trkpt lat="37.732340" lon="-119.604000">
        <ele>1211.563</ele>
        <time>2018-12-29T16:02:20Z</time>
      </trkpt>
      <trkpt lat="37.732470" lon="-119.603860">
        <ele>1211.144</ele>
        <time>2018-12-29T16:02:40Z</time>
      </trkpt>
      <trkpt lat="37.732750" lon="-119.603530">
        <ele>1210.418</ele>
        <time>2018-12-29T16:03:00Z</time>
      </trkpt>
      <trkpt lat="37.732810" lon="-119.603450">
        <ele>1210.308</ele>
        <time>2018-12-29T16:03:20Z</time>
      </trkpt>
      <trkpt lat="37.733060" lon="-119.603090">
        <ele>1209.989</ele>
        <time>2018-12-29T16:03:40Z</time>
      </trkpt>
      <trkpt lat="37.733850" lon="-119.601940">
        <ele>1212.597</ele>
        <time>2018-12-29T16:04:00Z</time>
      </trkpt>
      <trkpt lat="37.733930" lon="-119.601850">
        <ele>1212.572</ele>
        <time>2018-12-29T16:04:20Z</time>
      </trkpt>
      <trkpt lat="37.734260" lon="-119.601430">
        <ele>1212.591</ele>
        <time>2018-12-29T16:04:40Z</time>
      </trkpt>
      <trkpt lat="37.734520" lon="-119.601180">
        <ele>1212.295</ele>
        <time>2018-12-29T16:05:00Z</time>
      </trkpt>
      <trkpt lat="37.734840" lon="-119.600860">
        <ele>1211.381</ele>
        <time>2018-12-29T16:05:20Z</time>
      </trkpt>
      <trkpt lat="37.735050" lon="-119.600670">
        <ele>1210.568</ele>
        <time>2018-12-29T16:05:40Z</time>
      </trkpt>
      <trkpt lat="37.735370" lon="-119.600350">
        <ele>1209.652</ele>
        <time>2018-12-29T16:06:00Z</time>
      </trkpt>
      <trkpt lat="37.735580" lon="-119.600080">
        <ele>1209.569</ele>
        <time>2018-12-29T16:06:20Z</time>
      </trkpt>
      <trkpt lat="37.735800" lon="-119.599800">
        <ele>1210.004</ele>
        <time>2018-12-29T16:06:40Z</time>
      </trkpt>
      <trkpt lat="37.736370" lon="-119.599010">
        <ele>1210.824</ele>
        <time>2018-12-29T16:07:00Z</time>
      </trkpt>
      <trkpt lat="37.736690" lon="-119.598570">
        <ele>1210.508</ele>
        <time>2018-12-29T16:07:20Z</time>
      </trkpt>
      <trkpt lat="37.737040" lon="-119.598040">
        <ele>1209.879</ele>
        <time>2018-12-29T16:07:40Z</time>
      </trkpt>
      <trkpt lat="37.737280" lon="-119.597590">
        <ele>1209.267</ele>
        <time>2018-12-29T16:08:00Z</time>
      </trkpt>
      <trkpt lat="37.737360" lon="-119.597410">
        <ele>1209.292</ele>
        <time>2018-12-29T16:08:20Z</time>
      </trkpt>
      <trkpt lat="37.737450" lon="-119.597290">
        <ele>1209.291</ele>
        <time>2018-12-29T16:08:40Z</time>
      </trkpt>
      <trkpt lat="37.738160" lon="-119.596090">
        <ele>1206.835</ele>
        <time>2018-12-29T16:09:00Z</time>
      </trkpt>
      <trkpt lat="37.738580" lon="-119.595430">
        <ele>1206.691</ele>
        <time>2018-12-29T16:09:20Z</time>
      </trkpt>
      <trkpt lat="37.738680" lon="-119.595280">
        <ele>1206.688</ele>
        <time>2018-12-29T16:09:40Z</time>
      </trkpt>
      <trkpt lat="37.739120" lon="-119.594580">
        <ele>1206.672</ele>
        <time>2018-12-29T16:10:00Z</time>
      </trkpt>
      <trkpt lat="37.739170" lon="-119.594500">
        <ele>1206.658</ele>
        <time>2018-12-29T16:10:20Z</time>
      </trkpt>
      <trkpt lat="37.739640" lon="-119.593820">
        <ele>1206.652</ele>
        <time>2018-12-29T16:10:40Z</time>
      </trkpt>
      <trkpt lat="37.739860" lon="-119.593510">
        <ele>1206.617</ele>
        <time>2018-12-29T16:11:00Z</time>
      </trkpt>
      <trkpt lat="37.740020" lon="-119.593320">
        <ele>1206.608</ele>
        <time>2018-12-29T16:11:20Z</time>
      </trkpt>
      <trkpt lat="37.740170" lon="-119.593150">
        <ele>1206.668</ele>
        <time>2018-12-29T16:11:40Z</time>
      </trkpt>
      <trkpt lat="37.740330" lon="-119.593000">
        <ele>1206.676</ele>
        <time>2018-12-29T16:12:00Z</time>
      </trkpt>
      <trkpt lat="37.741040" lon="-119.592310">
        <ele>1206.671</ele>
        <time>2018-12-29T16:12:20Z</time>
      </trkpt>
      <trkpt lat="37.741390" lon="-119.592040">
        <ele>1206.680</ele>
        <time>2018-12-29T16:12:40Z</time>
      </trkpt>
      <trkpt lat="37.741790" lon="-119.591790">
        <ele>1206.854</ele>
        <time>2018-12-29T16:13:00Z</time>
      </trkpt>
      <trkpt lat="37.741900" lon="-119.591670">
        <ele>1207.250</ele>
        <time>2018-12-29T16:13:20Z</time>
      </trkpt>
      <trkpt lat="37.742070" lon="-119.591570">
        <ele>1207.667</ele>
        <time>2018-12-29T16:13:40Z</time>
      </trkpt>
      <trkpt lat="37.742200" lon="-119.591480">
        <ele>1208.011</ele>
        <time>2018-12-29T16:14:00Z</time>
      </trkpt>
      <trkpt lat="37.742300" lon="-119.591400">
        <ele>1208.397</ele>
        <time>2018-12-29T16:14:20Z</time>
      </trkpt>
      <trkpt lat="37.742410" lon="-119.591310">
        <ele>1208.723</ele>
        <time>2018-12-29T16:14:40Z</time>
      </trkpt>
      <trkpt lat="37.742490" lon="-119.591220">
        <ele>1208.825</ele>
        <time>2018-12-29T16:15:00Z</time>
      </trkpt>
      <trkpt lat="37.742660" lon="-119.591030">
        <ele>1209.108</ele>
        <time>2018-12-29T16:15:20Z</time>
      </trkpt>
      <trkpt lat="37.742820" lon="-119.590850">
        <ele>1209.142</ele>
        <time>2018-12-29T16:15:40Z</time>
      </trkpt>
      <trkpt lat="37.742890" lon="-119.590770">
        <ele>1209.020</ele>
        <time>2018-12-29T16:16:00Z</time>
      </trkpt>
      <trkpt lat="37.742950" lon="-119.590690">
        <ele>1209.055</ele>
        <time>2018-12-29T16:16:20Z</time>
      </trkpt>
      <trkpt lat="37.743030" lon="-119.590570">
        <ele>1208.934</ele>
        <time>2018-12-29T16:16:40Z</time>
      </trkpt>
      <trkpt lat="37.743060" lon="-119.590500">
        <ele>1208.968</ele>
        <time>2018-12-29T16:17:00Z</time>
      </trkpt>
      <trkpt lat="37.743090" lon="-119.590440">
        <ele>1208.924</ele>
        <time>2018-12-29T16:17:20Z</time>
      </trkpt>
      <trkpt lat="37.743100" lon="-119.590380">
        <ele>1208.921</ele>
        <time>2018-12-29T16:17:40Z</time>
      </trkpt>
      <trkpt lat="37.743120" lon="-119.590310">
        <ele>1208.875</ele>
        <time>2018-12-29T16:18:00Z</time>
      </trkpt>
      <trkpt lat="37.743130" lon="-119.590220">
        <ele>1208.925</ele>
        <time>2018-12-29T16:18:20Z</time>
      </trkpt>
      <trkpt lat="37.743140" lon="-119.590140">
        <ele>1208.926</ele>
        <time>2018-12-29T16:18:40Z</time>
      </trkpt>
      <trkpt lat="37.743140" lon="-119.590070">
        <ele>1208.908</ele>
        <time>2018-12-29T16:19:00Z</time>
      </trkpt>
      <trkpt lat="37.743130" lon="-119.589920">
        <ele>1208.908</ele>
        <time>2018-12-29T16:19:20Z</time>
      </trkpt>
      <trkpt lat="37.743110" lon="-119.589720">
        <ele>1209.025</ele>
        <time>2018-12-29T16:19:40Z</time>
      </trkpt>
      <trkpt lat="37.743110" lon="-119.589721">
        <ele>1209.093</ele>
        <time>2018-12-29T16:20:00Z</time>
      </trkpt>
      <trkpt lat="37.743170" lon="-119.589720">
        <ele>1208.788</ele>
        <time>2018-12-29T16:20:20Z</time>
      </trkpt>
      <trkpt lat="37.743560" lon="-119.589660">
        <ele>1208.287</ele>
        <time>2018-12-29T16:20:40Z</time>
      </trkpt>
      <trkpt lat="37.743680" lon="-119.589650">
        <ele>1208.391</ele>
        <time>2018-12-29T16:21:00Z</time>
      </trkpt>
      <trkpt lat="37.743740" lon="-119.589640">
        <ele>1208.337</ele>
        <time>2018-12-29T16:21:20Z</time>
      </trkpt>
      <trkpt lat="37.743830" lon="-119.589620">
        <ele>1208.334</ele>
        <time>2018-12-29T16:21:40Z</time>
      </trkpt>
      <trkpt lat="37.743900" lon="-119.589600">
        <ele>1208.358</ele>
        <time>2018-12-29T16:22:00Z</time>
      </trkpt>
      <trkpt lat="37.743960" lon="-119.589570">
        <ele>1208.316</ele>
        <time>2018-12-29T16:22:20Z</time>
      </trkpt>
      <trkpt lat="37.744010" lon="-119.589540">
        <ele>1208.376</ele>
        <time>2018-12-29T16:22:40Z</time>
      </trkpt>
      <trkpt lat="37.744080" lon="-119.589480">
        <ele>1208.313</ele>
        <time>2018-12-29T16:23:00Z</time>
      </trkpt>
      <trkpt lat="37.744130" lon="-119.589440">
        <ele>1208.308</ele>
        <time>2018-12-29T16:23:20Z</time>
      </trkpt>
      <trkpt lat="37.744170" lon="-119.589400">
        <ele>1208.354</ele>
        <time>2018-12-29T16:23:40Z</time>
      </trkpt>
      <trkpt lat="37.744190" lon="-119.589370">
        <ele>1208.372</ele>
        <time>2018-12-29T16:24:00Z</time>
      </trkpt>
      <trkpt lat="37.744270" lon="-119.589220">
        <ele>1208.367</ele>
        <time>2018-12-29T16:24:20Z</time>
      </trkpt>
      <trkpt lat="37.744360" lon="-119.589040">
        <ele>1208.356</ele>
        <time>2018-12-29T16:24:40Z</time>
      </trkpt>
      <trkpt lat="37.744450" lon="-119.588870">
        <ele>1208.220</ele>
        <time>2018-12-29T16:25:00Z</time>
      </trkpt>
      <trkpt lat="37.744490" lon="-119.588770">
        <ele>1208.286</ele>
        <time>2018-12-29T16:25:20Z</time>
      </trkpt>
      <trkpt lat="37.744530" lon="-119.588670">
        <ele>1208.183</ele>
        <time>2018-12-29T16:25:40Z</time>
      </trkpt>
      <trkpt lat="37.744570" lon="-119.588570">
        <ele>1208.167</ele>
        <time>2018-12-29T16:26:00Z</time>
      </trkpt>
      <trkpt lat="37.744600" lon="-119.588480">
        <ele>1208.178</ele>
        <time>2018-12-29T16:26:20Z</time>
      </trkpt>
      <trkpt lat="37.744650" lon="-119.588340">
        <ele>1208.133</ele>
        <time>2018-12-29T16:26:40Z</time>
      </trkpt>
      <trkpt lat="37.744720" lon="-119.588090">
        <ele>1208.126</ele>
        <time>2018-12-29T16:27:00Z</time>
      </trkpt>
      <trkpt lat="37.744750" lon="-119.587980">
        <ele>1208.108</ele>
        <time>2018-12-29T16:27:20Z</time>
      </trkpt>
      <trkpt lat="37.744780" lon="-119.587860">
        <ele>1208.170</ele>
        <time>2018-12-29T16:27:40Z</time>
      </trkpt>
      <trkpt lat="37.744820" lon="-119.587720">
        <ele>1208.138</ele>
        <time>2018-12-29T16:28:00Z</time>
      </trkpt>
      <trkpt lat="37.744840" lon="-119.587620">
        <ele>1208.193</ele>
        <time>2018-12-29T16:28:20Z</time>
      </trkpt>
      <trkpt lat="37.744860" lon="-119.587490">
        <ele>1208.132</ele>
        <time>2018-12-29T16:28:40Z</time>
      </trkpt>
      <trkpt lat="37.744890" lon="-119.587370">
        <ele>1208.176</ele>
        <time>2018-12-29T16:29:00Z</time>
      </trkpt>
      <trkpt lat="37.744900" lon="-119.587230">
        <ele>1208.182</ele>
        <time>2018-12-29T16:29:20Z</time>
      </trkpt>
      <trkpt lat="37.744920" lon="-119.587090">
        <ele>1208.259</ele>
        <time>2018-12-29T16:29:40Z</time>
      </trkpt>
      <trkpt lat="37.744930" lon="-119.586970">
        <ele>1208.253</ele>
        <time>2018-12-29T16:30:00Z</time>
      </trkpt>
      <trkpt lat="37.744950" lon="-119.586730">
        <ele>1208.371</ele>
        <time>2018-12-29T16:30:20Z</time>
      </trkpt>
      <trkpt lat="37.744950" lon="-119.586550">
        <ele>1208.341</ele>
        <time>2018-12-29T16:30:40Z</time>
      </trkpt>
      <trkpt lat="37.744950" lon="-119.586460">
        <ele>1208.315</ele>
        <time>2018-12-29T16:31:00Z</time>
      </trkpt>
      <trkpt lat="37.744940" lon="-119.586350">
        <ele>1208.408</ele>
        <time>2018-12-29T16:31:20Z</time>
      </trkpt>
      <trkpt lat="37.744939" lon="-119.586346">
        <ele>1208.480</ele>
        <time>2018-12-29T16:31:40Z</time>
      </trkpt>
      <trkpt lat="37.745130" lon="-119.586230">
        <ele>1208.928</ele>
        <time>2018-12-29T16:32:00Z</time>
      </trkpt>
      <trkpt lat="37.745320" lon="-119.586090">
        <ele>1209.213</ele>
        <time>2018-12-29T16:32:20Z</time>
      </trkpt>
      <trkpt lat="37.745500" lon="-119.585970">
        <ele>1209.612</ele>
        <time>2018-12-29T16:32:40Z</time>
      </trkpt>
      <trkpt lat="37.745580" lon="-119.585930">
        <ele>1209.876</ele>
        <time>2018-12-29T16:33:00Z</time>
      </trkpt>
      <trkpt lat="37.745630" lon="-119.585920">
        <ele>1209.862</ele>
        <time>2018-12-29T16:33:20Z</time>
      </trkpt>
      <trkpt lat="37.745700" lon="-119.585900">
        <ele>1210.039</ele>
        <time>2018-12-29T16:33:40Z</time>
      </trkpt>
      <trkpt lat="37.745760" lon="-119.585900">
        <ele>1210.153</ele>
        <time>2018-12-29T16:34:00Z</time>
      </trkpt>
      <trkpt lat="37.745830" lon="-119.585910">
        <ele>1210.272</ele>
        <time>2018-12-29T16:34:20Z</time>
      </trkpt>
      <trkpt lat="37.745860" lon="-119.585920">
        <ele>1210.313</ele>
        <time>2018-12-29T16:34:40Z</time>
      </trkpt>
      <trkpt lat="37.745900" lon="-119.585920">
        <ele>1210.414</ele>
        <time>2018-12-29T16:35:00Z</time>
      </trkpt>
      <trkpt lat="37.745930" lon="-119.585930">
        <ele>1210.408</ele>
        <time>2018-12-29T16:35:20Z</time>
      </trkpt>
      <trkpt lat="37.745950" lon="-119.585940">
        <ele>1210.490</ele>
        <time>2018-12-29T16:35:40Z</time>
      </trkpt>
      <trkpt lat="37.746000" lon="-119.585960">
        <ele>1210.598</ele>
        <time>2018-12-29T16:36:00Z</time>
      </trkpt>
      <trkpt lat="37.746040" lon="-119.585980">
        <ele>1210.773</ele>
        <time>2018-12-29T16:36:20Z</time>
      </trkpt>
      <trkpt lat="37.746060" lon="-119.586000">
        <ele>1210.792</ele>
        <time>2018-12-29T16:36:40Z</time>
      </trkpt>
      <trkpt lat="37.746080" lon="-119.586020">
        <ele>1210.796</ele>
        <time>2018-12-29T16:37:00Z</time>
      </trkpt>
      <trkpt lat="37.746120" lon="-119.586050">
        <ele>1210.942</ele>
        <time>2018-12-29T16:37:20Z</time>
      </trkpt>
      <trkpt lat="37.746150" lon="-119.586090">
        <ele>1210.999</ele>
        <time>2018-12-29T16:37:40Z</time>
      </trkpt>
      <trkpt lat="37.746200" lon="-119.586170">
        <ele>1211.093</ele>
        <time>2018-12-29T16:38:00Z</time>
      </trkpt>
      <trkpt lat="37.746300" lon="-119.586340">
        <ele>1211.225</ele>
        <time>2018-12-29T16:38:20Z</time>
      </trkpt>
      <trkpt lat="37.746350" lon="-119.586410">
        <ele>1211.326</ele>
        <time>2018-12-29T16:38:40Z</time>
      </trkpt>
      <trkpt lat="37.746390" lon="-119.586490">
        <ele>1211.408</ele>
        <time>2018-12-29T16:39:00Z</time>
      </trkpt>
      <trkpt lat="37.746440" lon="-119.586600">
        <ele>1211.408</ele>
        <time>2018-12-29T16:39:20Z</time>
      </trkpt>
      <trkpt lat="37.746500" lon="-119.586720">
        <ele>1211.555</ele>
        <time>2018-12-29T16:39:40Z</time>
      </trkpt>
      <trkpt lat="37.746540" lon="-119.586820">
        <ele>1211.593</ele>
        <time>2018-12-29T16:40:00Z</time>
      </trkpt>
      <trkpt lat="37.746590" lon="-119.586940">
        <ele>1211.618</ele>
        <time>2018-12-29T16:40:20Z</time>
      </trkpt>
      <trkpt lat="37.746630" lon="-119.587060">
        <ele>1211.677</ele>
        <time>2018-12-29T16:40:40Z</time>
      </trkpt>
      <trkpt lat="37.746660" lon="-119.587170">
        <ele>1211.621</ele>
        <time>2018-12-29T16:41:00Z</time>
      </trkpt>
      <trkpt lat="37.746690" lon="-119.587280">
        <ele>1211.697</ele>
        <time>2018-12-29T16:41:20Z</time>
      </trkpt>
      <trkpt lat="37.746720" lon="-119.587390">
        <ele>1211.674</ele>
        <time>2018-12-29T16:41:40Z</time>
      </trkpt>
      <trkpt lat="37.746740" lon="-119.587490">
        <ele>1211.658</ele>
        <time>2018-12-29T16:42:00Z</time>
      </trkpt>
      <trkpt lat="37.746760" lon="-119.587600">
        <ele>1211.589</ele>
        <time>2018-12-29T16:42:20Z</time>
      </trkpt>
      <trkpt lat="37.746780" lon="-119.587720">
        <ele>1211.506</ele>
        <time>2018-12-29T16:42:40Z</time>
      </trkpt>
      <trkpt lat="37.746790" lon="-119.587840">
        <ele>1211.526</ele>
        <time>2018-12-29T16:43:00Z</time>
      </trkpt>
      <trkpt lat="37.746800" lon="-119.587960">
        <ele>1211.508</ele>
        <time>2018-12-29T16:43:20Z</time>
      </trkpt>
      <trkpt lat="37.746810" lon="-119.588070">
        <ele>1211.381</ele>
        <time>2018-12-29T16:43:40Z</time>
      </trkpt>
      <trkpt lat="37.746810" lon="-119.588190">
        <ele>1211.159</ele>
        <time>2018-12-29T16:44:00Z</time>
      </trkpt>
      <trkpt lat="37.746810" lon="-119.588310">
        <ele>1211.144</ele>
        <time>2018-12-29T16:44:20Z</time>
      </trkpt>
      <trkpt lat="37.746810" lon="-119.588400">
        <ele>1211.053</ele>
        <time>2018-12-29T16:44:40Z</time>
      </trkpt>
      <trkpt lat="37.746800" lon="-119.588550">
        <ele>1211.097</ele>
        <time>2018-12-29T16:45:00Z</time>
      </trkpt>
      <trkpt lat="37.746790" lon="-119.588670">
        <ele>1211.063</ele>
        <time>2018-12-29T16:45:20Z</time>
      </trkpt>
      <trkpt lat="37.746770" lon="-119.588790">
        <ele>1211.070</ele>
        <time>2018-12-29T16:45:40Z</time>
      </trkpt>
      <trkpt lat="37.746740" lon="-119.589040">
        <ele>1210.984</ele>
        <time>2018-12-29T16:46:00Z</time>
      </trkpt>
      <trkpt lat="37.746680" lon="-119.589500">
        <ele>1211.062</ele>
        <time>2018-12-29T16:46:20Z</time>
      </trkpt>
      <trkpt lat="37.746640" lon="-119.589830">
        <ele>1210.783</ele>
        <time>2018-12-29T16:46:40Z</time>
      </trkpt>
      <trkpt lat="37.746630" lon="-119.589980">
        <ele>1210.611</ele>
        <time>2018-12-29T16:47:00Z</time>
      </trkpt>
      <trkpt lat="37.746560" lon="-119.590540">
        <ele>1210.108</ele>
        <time>2018-12-29T16:47:20Z</time>
      </trkpt>
      <trkpt lat="37.746510" lon="-119.590870">
        <ele>1209.919</ele>
        <time>2018-12-29T16:47:40Z</time>
      </trkpt>
      <trkpt lat="37.746460" lon="-119.591140">
        <ele>1209.647</ele>
        <time>2018-12-29T16:48:00Z</time>
      </trkpt>
      <trkpt lat="37.746380" lon="-119.591480">
        <ele>1209.392</ele>
        <time>2018-12-29T16:48:20Z</time>
      </trkpt>
      <trkpt lat="37.746300" lon="-119.591760">
        <ele>1209.351</ele>
        <time>2018-12-29T16:48:40Z</time>
      </trkpt>
      <trkpt lat="37.745980" lon="-119.592600">
        <ele>1209.815</ele>
        <time>2018-12-29T16:49:00Z</time>
      </trkpt>
      <trkpt lat="37.745930" lon="-119.592710">
        <ele>1209.851</ele>
        <time>2018-12-29T16:49:20Z</time>
      </trkpt>
      <trkpt lat="37.745540" lon="-119.593580">
        <ele>1209.098</ele>
        <time>2018-12-29T16:49:40Z</time>
      </trkpt>
      <trkpt lat="37.745542" lon="-119.593584">
        <ele>1209.042</ele>
        <time>2018-12-29T16:50:00Z</time>
      </trkpt>
      <trkpt lat="37.745542" lon="-119.593584">
        <ele>1209.011</ele>
        <time>2018-12-27T13:47:15Z</time>
      </trkpt>
      <trkpt lat="37.745470" lon="-119.593750">
        <ele>1209.121</ele>
        <time>2018-12-27T13:47:35Z</time>
      </trkpt>
      <trkpt lat="37.745440" lon="-119.593800">
        <ele>1209.103</ele>
        <time>2018-12-27T13:47:55Z</time>
      </trkpt>
      <trkpt lat="37.745340" lon="-119.594040">
        <ele>1209.008</ele>
        <time>2018-12-27T13:48:15Z</time>
      </trkpt>
      <trkpt lat="37.745300" lon="-119.594150">
        <ele>1209.034</ele>
        <time>2018-12-27T13:48:35Z</time>
      </trkpt>
      <trkpt lat="37.745230" lon="-119.594380">
        <ele>1209.132</ele>
        <time>2018-12-27T13:48:55Z</time>
      </trkpt>
      <trkpt lat="37.745220" lon="-119.594510">
        <ele>1209.267</ele>
        <time>2018-12-27T13:49:15Z</time>
      </trkpt>
      <trkpt lat="37.745210" lon="-119.594610">
        <ele>1209.297</ele>
        <time>2018-12-27T13:49:35Z</time>
      </trkpt>
      <trkpt lat="37.745210" lon="-119.594710">
        <ele>1209.261</ele>
        <time>2018-12-27T13:49:55Z</time>
      </trkpt>
      <trkpt lat="37.745220" lon="-119.594820">
        <ele>1209.361</ele>
        <time>2018-12-27T13:50:15Z</time>
      </trkpt>
      <trkpt lat="37.745240" lon="-119.594920">
        <ele>1209.387</ele>
        <time>2018-12-27T13:50:35Z</time>
      </trkpt>
      <trkpt lat="37.745260" lon="-119.595030">
        <ele>1209.386</ele>
        <time>2018-12-27T13:50:55Z</time>
      </trkpt>
      <trkpt lat="37.745320" lon="-119.595210">
        <ele>1209.697</ele>
        <time>2018-12-27T13:51:15Z</time>
      </trkpt>
      <trkpt lat="37.745460" lon="-119.595540">
        <ele>1210.823</ele>
        <time>2018-12-27T13:51:35Z</time>
      </trkpt>
      <trkpt lat="37.745520" lon="-119.595720">
        <ele>1211.525</ele>
        <time>2018-12-27T13:51:55Z</time>
      </trkpt>
      <trkpt lat="37.745590" lon="-119.595940">
        <ele>1212.308</ele>
        <time>2018-12-27T13:52:15Z</time>
      </trkpt>
      <trkpt lat="37.745640" lon="-119.596130">
        <ele>1213.022</ele>
        <time>2018-12-27T13:52:35Z</time>
      </trkpt>
      <trkpt lat="37.745680" lon="-119.596320">
        <ele>1213.870</ele>
        <time>2018-12-27T13:52:55Z</time>
      </trkpt>
      <trkpt lat="37.745700" lon="-119.596440">
        <ele>1214.475</ele>
        <time>2018-12-27T13:53:15Z</time>
      </trkpt>
      <trkpt lat="37.745710" lon="-119.596530">
        <ele>1214.975</ele>
        <time>2018-12-27T13:53:35Z</time>
      </trkpt>
      <trkpt lat="37.745710" lon="-119.596650">
        <ele>1215.589</ele>
        <time>2018-12-27T13:53:55Z</time>
      </trkpt>
      <trkpt lat="37.745720" lon="-119.596810">
        <ele>1216.419</ele>
        <time>2018-12-27T13:54:15Z</time>
      </trkpt>
      <trkpt lat="37.745720" lon="-119.597030">
        <ele>1217.615</ele>
        <time>2018-12-27T13:54:35Z</time>
      </trkpt>
      <trkpt lat="37.745710" lon="-119.597210">
        <ele>1218.414</ele>
        <time>2018-12-27T13:54:55Z</time>
      </trkpt>
      <trkpt lat="37.745680" lon="-119.597530">
        <ele>1219.691</ele>
        <time>2018-12-27T13:55:15Z</time>
      </trkpt>
      <trkpt lat="37.745620" lon="-119.597800">
        <ele>1220.681</ele>
        <time>2018-12-27T13:55:35Z</time>
      </trkpt>
      <trkpt lat="37.745560" lon="-119.598050">
        <ele>1221.619</ele>
        <time>2018-12-27T13:55:55Z</time>
      </trkpt>
      <trkpt lat="37.745490" lon="-119.598230">
        <ele>1222.208</ele>
        <time>2018-12-27T13:56:15Z</time>
      </trkpt>
      <trkpt lat="37.745480" lon="-119.598260">
        <ele>1222.372</ele>
        <time>2018-12-27T13:56:35Z</time>
      </trkpt>
      <trkpt lat="37.745410" lon="-119.598450">
        <ele>1222.770</ele>
        <time>2018-12-27T13:56:55Z</time>
      </trkpt>
      <trkpt lat="37.745260" lon="-119.598680">
        <ele>1222.185</ele>
        <time>2018-12-27T13:57:15Z</time>
      </trkpt>
      <trkpt lat="37.745120" lon="-119.598900">
        <ele>1221.755</ele>
        <time>2018-12-27T13:57:35Z</time>
      </trkpt>
      <trkpt lat="37.744990" lon="-119.599060">
        <ele>1221.469</ele>
        <time>2018-12-27T13:57:55Z</time>
      </trkpt>
      <trkpt lat="37.744860" lon="-119.599200">
        <ele>1221.019</ele>
        <time>2018-12-27T13:58:15Z</time>
      </trkpt>
      <trkpt lat="37.744720" lon="-119.599340">
        <ele>1220.775</ele>
        <time>2018-12-27T13:58:35Z</time>
      </trkpt>
      <trkpt lat="37.744510" lon="-119.599490">
        <ele>1219.834</ele>
        <time>2018-12-27T13:58:55Z</time>
      </trkpt>
      <trkpt lat="37.744300" lon="-119.599610">
        <ele>1218.671</ele>
        <time>2018-12-27T13:59:15Z</time>
      </trkpt>
      <trkpt lat="37.744080" lon="-119.599720">
        <ele>1217.741</ele>
        <time>2018-12-27T13:59:35Z</time>
      </trkpt>
      <trkpt lat="37.743870" lon="-119.599800">
        <ele>1217.015</ele>
        <time>2018-12-27T13:59:55Z</time>
      </trkpt>
      <trkpt lat="37.743490" lon="-119.599940">
        <ele>1216.108</ele>
        <time>2018-12-27T14:00:15Z</time>
      </trkpt>
      <trkpt lat="37.743220" lon="-119.600070">
        <ele>1215.740</ele>
        <time>2018-12-27T14:00:35Z</time>
      </trkpt>
      <trkpt lat="37.742940" lon="-119.600230">
        <ele>1215.178</ele>
        <time>2018-12-27T14:00:55Z</time>
      </trkpt>
      <trkpt lat="37.742780" lon="-119.600330">
        <ele>1214.973</ele>
        <time>2018-12-27T14:01:15Z</time>
      </trkpt>
      <trkpt lat="37.742530" lon="-119.600530">
        <ele>1214.493</ele>
        <time>2018-12-27T14:01:35Z</time>
      </trkpt>
      <trkpt lat="37.742080" lon="-119.601000">
        <ele>1213.867</ele>
        <time>2018-12-27T14:01:55Z</time>
      </trkpt>
      <trkpt lat="37.741990" lon="-119.601100">
        <ele>1213.627</ele>
        <time>2018-12-27T14:02:15Z</time>
      </trkpt>
      <trkpt lat="37.741800" lon="-119.601340">
        <ele>1213.423</ele>
        <time>2018-12-27T14:02:35Z</time>
      </trkpt>
      <trkpt lat="37.741720" lon="-119.601450">
        <ele>1213.382</ele>
        <time>2018-12-27T14:02:55Z</time>
      </trkpt>
      <trkpt lat="37.741440" lon="-119.601880">
        <ele>1213.156</ele>
        <time>2018-12-27T14:03:15Z</time>
      </trkpt>
      <trkpt lat="37.740930" lon="-119.602640">
        <ele>1212.459</ele>
        <time>2018-12-27T14:03:35Z</time>
      </trkpt>
      <trkpt lat="37.740750" lon="-119.602920">
        <ele>1212.414</ele>
        <time>2018-12-27T14:03:55Z</time>
      </trkpt>
      <trkpt lat="37.740620" lon="-119.603140">
        <ele>1212.408</ele>
        <time>2018-12-27T14:04:15Z</time>
      </trkpt>
      <trkpt lat="37.740590" lon="-119.603190">
        <ele>1212.478</ele>
        <time>2018-12-27T14:04:35Z</time>
      </trkpt>
      <trkpt lat="37.740560" lon="-119.603260">
        <ele>1212.516</ele>
        <time>2018-12-27T14:04:55Z</time>
      </trkpt>
      <trkpt lat="37.740520" lon="-119.603320">
        <ele>1212.541</ele>
        <time>2018-12-27T14:05:15Z</time>
      </trkpt>
      <trkpt lat="37.740480" lon="-119.603410">
        <ele>1212.691</ele>
        <time>2018-12-27T14:05:35Z</time>
      </trkpt>
      <trkpt lat="37.740400" lon="-119.603570">
        <ele>1212.885</ele>
        <time>2018-12-27T14:05:55Z</time>
      </trkpt>
      <trkpt lat="37.740200" lon="-119.604000">
        <ele>1213.195</ele>
        <time>2018-12-27T14:06:15Z</time>
      </trkpt>
      <trkpt lat="37.740070" lon="-119.604280">
        <ele>1213.131</ele>
        <time>2018-12-27T14:06:35Z</time>
      </trkpt>
      <trkpt lat="37.739590" lon="-119.605320">
        <ele>1212.130</ele>
        <time>2018-12-27T14:06:55Z</time>
      </trkpt>
      <trkpt lat="37.739520" lon="-119.605470">
        <ele>1211.877</ele>
        <time>2018-12-27T14:07:15Z</time>
      </trkpt>
      <trkpt lat="37.739370" lon="-119.605740">
        <ele>1211.061</ele>
        <time>2018-12-27T14:07:35Z</time>
      </trkpt>
      <trkpt lat="37.739280" lon="-119.605900">
        <ele>1210.327</ele>
        <time>2018-12-27T14:07:55Z</time>
      </trkpt>
      <trkpt lat="37.739170" lon="-119.606110">
        <ele>1209.208</ele>
        <time>2018-12-27T14:08:15Z</time>
      </trkpt>
      <trkpt lat="37.738860" lon="-119.606640">
        <ele>1206.990</ele>
        <time>2018-12-27T14:08:35Z</time>
      </trkpt>
      <trkpt lat="37.738700" lon="-119.606900">
        <ele>1206.718</ele>
        <time>2018-12-27T14:08:55Z</time>
      </trkpt>
      <trkpt lat="37.738620" lon="-119.607040">
        <ele>1206.873</ele>
        <time>2018-12-27T14:09:15Z</time>
      </trkpt>
      <trkpt lat="37.738530" lon="-119.607170">
        <ele>1207.023</ele>
        <time>2018-12-27T14:09:35Z</time>
      </trkpt>
      <trkpt lat="37.738440" lon="-119.607290">
        <ele>1207.437</ele>
        <time>2018-12-27T14:09:55Z</time>
      </trkpt>
      <trkpt lat="37.738200" lon="-119.607570">
        <ele>1208.227</ele>
        <time>2018-12-27T14:10:15Z</time>
      </trkpt>
      <trkpt lat="37.738030" lon="-119.607770">
        <ele>1210.063</ele>
        <time>2018-12-27T14:10:35Z</time>
      </trkpt>
      <trkpt lat="37.738000" lon="-119.607800">
        <ele>1210.282</ele>
        <time>2018-12-27T14:10:55Z</time>
      </trkpt>
      <trkpt lat="37.737880" lon="-119.607920">
        <ele>1211.035</ele>
        <time>2018-12-27T14:11:15Z</time>
      </trkpt>
      <trkpt lat="37.737820" lon="-119.607980">
        <ele>1211.286</ele>
        <time>2018-12-27T14:11:35Z</time>
      </trkpt>
      <trkpt lat="37.737740" lon="-119.608060">
        <ele>1211.414</ele>
        <time>2018-12-27T14:11:55Z</time>
      </trkpt>
      <trkpt lat="37.737660" lon="-119.608130">
        <ele>1211.508</ele>
        <time>2018-12-27T14:12:15Z</time>
      </trkpt>
      <trkpt lat="37.737590" lon="-119.608180">
        <ele>1211.386</ele>
        <time>2018-12-27T14:12:35Z</time>
      </trkpt>
      <trkpt lat="37.737530" lon="-119.608220">
        <ele>1210.914</ele>
        <time>2018-12-27T14:12:55Z</time>
      </trkpt>
      <trkpt lat="37.737350" lon="-119.608340">
        <ele>1209.559</ele>
        <time>2018-12-27T14:13:15Z</time>
      </trkpt>
      <trkpt lat="37.737240" lon="-119.608410">
        <ele>1208.789</ele>
        <time>2018-12-27T14:13:35Z</time>
      </trkpt>
      <trkpt lat="37.737060" lon="-119.608520">
        <ele>1208.763</ele>
        <time>2018-12-27T14:13:55Z</time>
      </trkpt>
      <trkpt lat="37.736760" lon="-119.608700">
        <ele>1209.533</ele>
        <time>2018-12-27T14:14:15Z</time>
      </trkpt>
      <trkpt lat="37.736210" lon="-119.609010">
        <ele>1215.659</ele>
        <time>2018-12-27T14:14:35Z</time>
      </trkpt>
      <trkpt lat="37.735850" lon="-119.609220">
        <ele>1212.648</ele>
        <time>2018-12-27T14:14:55Z</time>
      </trkpt>
      <trkpt lat="37.735680" lon="-119.609340">
        <ele>1208.122</ele>
        <time>2018-12-27T14:15:15Z</time>
      </trkpt>
      <trkpt lat="37.735500" lon="-119.609490">
        <ele>1208.762</ele>
        <time>2018-12-27T14:15:35Z</time>
      </trkpt>
      <trkpt lat="37.735330" lon="-119.609670">
        <ele>1208.908</ele>
        <time>2018-12-27T14:15:55Z</time>
      </trkpt>
      <trkpt lat="37.735110" lon="-119.609940">
        <ele>1209.108</ele>
        <time>2018-12-27T14:16:15Z</time>
      </trkpt>
      <trkpt lat="37.734800" lon="-119.610300">
        <ele>1209.225</ele>
        <time>2018-12-27T14:16:35Z</time>
      </trkpt>
      <trkpt lat="37.734540" lon="-119.610570">
        <ele>1208.823</ele>
        <time>2018-12-27T14:16:55Z</time>
      </trkpt>
      <trkpt lat="37.734130" lon="-119.610930">
        <ele>1207.658</ele>
        <time>2018-12-27T14:17:15Z</time>
      </trkpt>
      <trkpt lat="37.733960" lon="-119.611080">
        <ele>1207.538</ele>
        <time>2018-12-27T14:17:35Z</time>
      </trkpt>
      <trkpt lat="37.733770" lon="-119.611240">
        <ele>1207.462</ele>
        <time>2018-12-27T14:17:55Z</time>
      </trkpt>
      <trkpt lat="37.733700" lon="-119.611300">
        <ele>1208.092</ele>
        <time>2018-12-27T14:18:15Z</time>
      </trkpt>
      <trkpt lat="37.733660" lon="-119.611320">
        <ele>1208.258</ele>
        <time>2018-12-27T14:18:35Z</time>
      </trkpt>
      <trkpt lat="37.733620" lon="-119.611340">
        <ele>1208.417</ele>
        <time>2018-12-27T14:18:55Z</time>
      </trkpt>
      <trkpt lat="37.733560" lon="-119.611370">
        <ele>1208.664</ele>
        <time>2018-12-27T14:19:15Z</time>
      </trkpt>
      <trkpt lat="37.733510" lon="-119.611390">
        <ele>1208.706</ele>
        <time>2018-12-27T14:19:35Z</time>
      </trkpt>
      <trkpt lat="37.733450" lon="-119.611410">
        <ele>1208.816</ele>
        <time>2018-12-27T14:19:55Z</time>
      </trkpt>
      <trkpt lat="37.733370" lon="-119.611420">
        <ele>1209.308</ele>
        <time>2018-12-27T14:20:15Z</time>
      </trkpt>
      <trkpt lat="37.732780" lon="-119.611510">
        <ele>1210.549</ele>
        <time>2018-12-27T14:20:35Z</time>
      </trkpt>
      <trkpt lat="37.732730" lon="-119.611510">
        <ele>1210.157</ele>
        <time>2018-12-27T14:20:55Z</time>
      </trkpt>
      <trkpt lat="37.732200" lon="-119.611560">
        <ele>1210.532</ele>
        <time>2018-12-27T14:21:15Z</time>
      </trkpt>
      <trkpt lat="37.731940" lon="-119.611580">
        <ele>1211.532</ele>
        <time>2018-12-27T14:21:35Z</time>
      </trkpt>
      <trkpt lat="37.731890" lon="-119.611580">
        <ele>1211.716</ele>
        <time>2018-12-27T14:21:55Z</time>
      </trkpt>
      <trkpt lat="37.731850" lon="-119.611590">
        <ele>1211.926</ele>
        <time>2018-12-27T14:22:15Z</time>
      </trkpt>
      <trkpt lat="37.731800" lon="-119.611590">
        <ele>1212.172</ele>
        <time>2018-12-27T14:22:35Z</time>
      </trkpt>
      <trkpt lat="37.731750" lon="-119.611600">
        <ele>1212.231</ele>
        <time>2018-12-27T14:22:55Z</time>
      </trkpt>
      <trkpt lat="37.731660" lon="-119.611630">
        <ele>1212.474</ele>
        <time>2018-12-27T14:23:15Z</time>
      </trkpt>
      <trkpt lat="37.731390" lon="-119.611720">
        <ele>1213.356</ele>
        <time>2018-12-27T14:23:35Z</time>
      </trkpt>
      <trkpt lat="37.731200" lon="-119.611820">
        <ele>1214.221</ele>
        <time>2018-12-27T14:23:55Z</time>
      </trkpt>
      <trkpt lat="37.730710" lon="-119.612070">
        <ele>1214.708</ele>
        <time>2018-12-27T14:24:15Z</time>
      </trkpt>
      <trkpt lat="37.730600" lon="-119.612130">
        <ele>1214.840</ele>
        <time>2018-12-27T14:24:35Z</time>
      </trkpt>
      <trkpt lat="37.730280" lon="-119.612280">
        <ele>1214.788</ele>
        <time>2018-12-27T14:24:55Z</time>
      </trkpt>
      <trkpt lat="37.730030" lon="-119.612390">
        <ele>1214.453</ele>
        <time>2018-12-27T14:25:15Z</time>
      </trkpt>
      <trkpt lat="37.729860" lon="-119.612470">
        <ele>1214.233</ele>
        <time>2018-12-27T14:25:35Z</time>
      </trkpt>
      <trkpt lat="37.729660" lon="-119.612550">
        <ele>1213.837</ele>
        <time>2018-12-27T14:25:55Z</time>
      </trkpt>
      <trkpt lat="37.729480" lon="-119.612630">
        <ele>1213.487</ele>
        <time>2018-12-27T14:26:15Z</time>
      </trkpt>
      <trkpt lat="37.729340" lon="-119.612700">
        <ele>1213.213</ele>
        <time>2018-12-27T14:26:35Z</time>
      </trkpt>
      <trkpt lat="37.729280" lon="-119.612730">
        <ele>1213.162</ele>
        <time>2018-12-27T14:26:55Z</time>
      </trkpt>
      <trkpt lat="37.729160" lon="-119.612790">
        <ele>1212.978</ele>
        <time>2018-12-27T14:27:15Z</time>
      </trkpt>
      <trkpt lat="37.729100" lon="-119.612830">
        <ele>1212.933</ele>
        <time>2018-12-27T14:27:35Z</time>
      </trkpt>
      <trkpt lat="37.729010" lon="-119.612880">
        <ele>1212.726</ele>
        <time>2018-12-27T14:27:55Z</time>
      </trkpt>
      <trkpt lat="37.728820" lon="-119.613020">
        <ele>1212.408</ele>
        <time>2018-12-27T14:28:15Z</time>
      </trkpt>
      <trkpt lat="37.728600" lon="-119.613200">
        <ele>1212.230</ele>
        <time>2018-12-27T14:28:35Z</time>
      </trkpt>
      <trkpt lat="37.728500" lon="-119.613270">
        <ele>1211.938</ele>
        <time>2018-12-27T14:28:55Z</time>
      </trkpt>
      <trkpt lat="37.728380" lon="-119.613380">
        <ele>1211.713</ele>
        <time>2018-12-27T14:29:15Z</time>
      </trkpt>
      <trkpt lat="37.728310" lon="-119.613440">
        <ele>1211.453</ele>
        <time>2018-12-27T14:29:35Z</time>
      </trkpt>
      <trkpt lat="37.728190" lon="-119.613550">
        <ele>1211.047</ele>
        <time>2018-12-27T14:29:55Z</time>
      </trkpt>
      <trkpt lat="37.727660" lon="-119.614100">
        <ele>1208.317</ele>
        <time>2018-12-27T14:30:15Z</time>
      </trkpt>
      <trkpt lat="37.727560" lon="-119.614210">
        <ele>1208.143</ele>
        <time>2018-12-27T14:30:35Z</time>
      </trkpt>
      <trkpt lat="37.727390" lon="-119.614390">
        <ele>1207.732</ele>
        <time>2018-12-27T14:30:55Z</time>
      </trkpt>
      <trkpt lat="37.727320" lon="-119.614460">
        <ele>1207.533</ele>
        <time>2018-12-27T14:31:15Z</time>
      </trkpt>
      <trkpt lat="37.727240" lon="-119.614570">
        <ele>1207.323</ele>
        <time>2018-12-27T14:31:35Z</time>
      </trkpt>
      <trkpt lat="37.727200" lon="-119.614630">
        <ele>1207.215</ele>
        <time>2018-12-27T14:31:55Z</time>
      </trkpt>
      <trkpt lat="37.727170" lon="-119.614680">
        <ele>1207.108</ele>
        <time>2018-12-27T14:32:15Z</time>
      </trkpt>
      <trkpt lat="37.727130" lon="-119.614730">
        <ele>1207.146</ele>
        <time>2018-12-27T14:32:35Z</time>
      </trkpt>
      <trkpt lat="37.727090" lon="-119.614820">
        <ele>1207.144</ele>
        <time>2018-12-27T14:32:55Z</time>
      </trkpt>
      <trkpt lat="37.727050" lon="-119.614900">
        <ele>1207.189</ele>
        <time>2018-12-27T14:33:15Z</time>
      </trkpt>
      <trkpt lat="37.727020" lon="-119.614960">
        <ele>1207.219</ele>
        <time>2018-12-27T14:33:35Z</time>
      </trkpt>
      <trkpt lat="37.727000" lon="-119.615030">
        <ele>1207.273</ele>
        <time>2018-12-27T14:33:55Z</time>
      </trkpt>
      <trkpt lat="37.726970" lon="-119.615110">
        <ele>1207.333</ele>
        <time>2018-12-27T14:34:15Z</time>
      </trkpt>
      <trkpt lat="37.726950" lon="-119.615190">
        <ele>1207.339</ele>
        <time>2018-12-27T14:34:35Z</time>
      </trkpt>
      <trkpt lat="37.726910" lon="-119.615390">
        <ele>1207.348</ele>
        <time>2018-12-27T14:34:55Z</time>
      </trkpt>
      <trkpt lat="37.726890" lon="-119.615450">
        <ele>1207.354</ele>
        <time>2018-12-27T14:35:15Z</time>
      </trkpt>
      <trkpt lat="37.726870" lon="-119.615580">
        <ele>1207.256</ele>
        <time>2018-12-27T14:35:35Z</time>
      </trkpt>
      <trkpt lat="37.726850" lon="-119.615710">
        <ele>1207.111</ele>
        <time>2018-12-27T14:35:55Z</time>
      </trkpt>
      <trkpt lat="37.726830" lon="-119.615880">
        <ele>1207.208</ele>
        <time>2018-12-27T14:36:15Z</time>
      </trkpt>
      <trkpt lat="37.726820" lon="-119.616030">
        <ele>1207.218</ele>
        <time>2018-12-27T14:36:35Z</time>
      </trkpt>
      <trkpt lat="37.726810" lon="-119.616200">
        <ele>1207.216</ele>
        <time>2018-12-27T14:36:55Z</time>
      </trkpt>
      <trkpt lat="37.726810" lon="-119.616350">
        <ele>1207.291</ele>
        <time>2018-12-27T14:37:15Z</time>
      </trkpt>
      <trkpt lat="37.726810" lon="-119.616590">
        <ele>1207.251</ele>
        <time>2018-12-27T14:37:35Z</time>
      </trkpt>
      <trkpt lat="37.726820" lon="-119.616740">
        <ele>1207.245</ele>
        <time>2018-12-27T14:37:55Z</time>
      </trkpt>
      <trkpt lat="37.726820" lon="-119.616820">
        <ele>1207.265</ele>
        <time>2018-12-27T14:38:15Z</time>
      </trkpt>
      <trkpt lat="37.726830" lon="-119.616910">
        <ele>1207.341</ele>
        <time>2018-12-27T14:38:35Z</time>
      </trkpt>
      <trkpt lat="37.726840" lon="-119.617020">
        <ele>1207.340</ele>
        <time>2018-12-27T14:38:55Z</time>
      </trkpt>
      <trkpt lat="37.726850" lon="-119.617150">
        <ele>1207.567</ele>
        <time>2018-12-27T14:39:15Z</time>
      </trkpt>
      <trkpt lat="37.726860" lon="-119.617270">
        <ele>1207.981</ele>
        <time>2018-12-27T14:39:35Z</time>
      </trkpt>
      <trkpt lat="37.726870" lon="-119.617380">
        <ele>1208.219</ele>
        <time>2018-12-27T14:39:55Z</time>
      </trkpt>
      <trkpt lat="37.726890" lon="-119.617480">
        <ele>1208.508</ele>
        <time>2018-12-27T14:40:15Z</time>
      </trkpt>
      <trkpt lat="37.726950" lon="-119.617950">
        <ele>1209.799</ele>
        <time>2018-12-27T14:40:35Z</time>
      </trkpt>
      <trkpt lat="37.727070" lon="-119.618910">
        <ele>1211.417</ele>
        <time>2018-12-27T14:40:55Z</time>
      </trkpt>
      <trkpt lat="37.727180" lon="-119.619700">
        <ele>1212.442</ele>
        <time>2018-12-27T14:41:15Z</time>
      </trkpt>
      <trkpt lat="37.727250" lon="-119.620240">
        <ele>1212.872</ele>
        <time>2018-12-27T14:41:35Z</time>
      </trkpt>
      <trkpt lat="37.727270" lon="-119.620460">
        <ele>1212.796</ele>
        <time>2018-12-27T14:41:55Z</time>
      </trkpt>
      <trkpt lat="37.727270" lon="-119.620550">
        <ele>1212.646</ele>
        <time>2018-12-27T14:42:15Z</time>
      </trkpt>
      <trkpt lat="37.727280" lon="-119.620630">
        <ele>1212.622</ele>
        <time>2018-12-27T14:42:35Z</time>
      </trkpt>
      <trkpt lat="37.727280" lon="-119.620720">
        <ele>1212.521</ele>
        <time>2018-12-27T14:42:55Z</time>
      </trkpt>
      <trkpt lat="37.727280" lon="-119.620850">
        <ele>1212.363</ele>
        <time>2018-12-27T14:43:15Z</time>
      </trkpt>
      <trkpt lat="37.727270" lon="-119.620950">
        <ele>1212.244</ele>
        <time>2018-12-27T14:43:35Z</time>
      </trkpt>
      <trkpt lat="37.727260" lon="-119.621500">
        <ele>1212.318</ele>
        <time>2018-12-27T14:43:55Z</time>
      </trkpt>
      <trkpt lat="37.727250" lon="-119.621780">
        <ele>1212.208</ele>
        <time>2018-12-27T14:44:15Z</time>
      </trkpt>
      <trkpt lat="37.727240" lon="-119.621890">
        <ele>1212.119</ele>
        <time>2018-12-27T14:44:35Z</time>
      </trkpt>
      <trkpt lat="37.727180" lon="-119.622830">
        <ele>1211.037</ele>
        <time>2018-12-27T14:44:55Z</time>
      </trkpt>
      <trkpt lat="37.727180" lon="-119.622940">
        <ele>1210.892</ele>
        <time>2018-12-27T14:45:15Z</time>
      </trkpt>
      <trkpt lat="37.727180" lon="-119.623000">
        <ele>1210.482</ele>
        <time>2018-12-27T14:45:35Z</time>
      </trkpt>
      <trkpt lat="37.727180" lon="-119.623060">
        <ele>1210.126</ele>
        <time>2018-12-27T14:45:55Z</time>
      </trkpt>
      <trkpt lat="37.727190" lon="-119.623120">
        <ele>1209.876</ele>
        <time>2018-12-27T14:46:15Z</time>
      </trkpt>
      <trkpt lat="37.727200" lon="-119.623190">
        <ele>1209.472</ele>
        <time>2018-12-27T14:46:35Z</time>
      </trkpt>
      <trkpt lat="37.727210" lon="-119.623240">
        <ele>1209.161</ele>
        <time>2018-12-27T14:46:55Z</time>
      </trkpt>
      <trkpt lat="37.727220" lon="-119.623300">
        <ele>1208.687</ele>
        <time>2018-12-27T14:47:15Z</time>
      </trkpt>
      <trkpt lat="37.727250" lon="-119.623380">
        <ele>1208.142</ele>
        <time>2018-12-27T14:47:35Z</time>
      </trkpt>
      <trkpt lat="37.727270" lon="-119.623440">
        <ele>1207.726</ele>
        <time>2018-12-27T14:47:55Z</time>
      </trkpt>
      <trkpt lat="37.727300" lon="-119.623530">
        <ele>1207.308</ele>
        <time>2018-12-27T14:48:15Z</time>
      </trkpt>
      <trkpt lat="37.727360" lon="-119.623640">
        <ele>1207.171</ele>
        <time>2018-12-27T14:48:35Z</time>
      </trkpt>
      <trkpt lat="37.727460" lon="-119.623890">
        <ele>1207.099</ele>
        <time>2018-12-27T14:48:55Z</time>
      </trkpt>
      <trkpt lat="37.727490" lon="-119.623970">
        <ele>1207.044</ele>
        <time>2018-12-27T14:49:15Z</time>
      </trkpt>
      <trkpt lat="37.727500" lon="-119.624020">
        <ele>1207.094</ele>
        <time>2018-12-27T14:49:35Z</time>
      </trkpt>
      <trkpt lat="37.727520" lon="-119.624090">
        <ele>1207.148</ele>
        <time>2018-12-27T14:49:55Z</time>
      </trkpt>
      <trkpt lat="37.727560" lon="-119.624250">
        <ele>1207.228</ele>
        <time>2018-12-27T14:50:15Z</time>
      </trkpt>
      <trkpt lat="37.727570" lon="-119.624290">
        <ele>1207.314</ele>
        <time>2018-12-27T14:50:35Z</time>
      </trkpt>
      <trkpt lat="37.727570" lon="-119.624330">
        <ele>1207.263</ele>
        <time>2018-12-27T14:50:55Z</time>
      </trkpt>
      <trkpt lat="37.727580" lon="-119.624450">
        <ele>1207.048</ele>
        <time>2018-12-27T14:51:15Z</time>
      </trkpt>
      <trkpt lat="37.727570" lon="-119.624680">
        <ele>1206.361</ele>
        <time>2018-12-27T14:51:35Z</time>
      </trkpt>
      <trkpt lat="37.727570" lon="-119.624740">
        <ele>1206.017</ele>
        <time>2018-12-27T14:51:55Z</time>
      </trkpt>
      <trkpt lat="37.727560" lon="-119.624800">
        <ele>1205.708</ele>
        <time>2018-12-27T14:52:15Z</time>
      </trkpt>
      <trkpt lat="37.727550" lon="-119.624850">
        <ele>1205.577</ele>
        <time>2018-12-27T14:52:35Z</time>
      </trkpt>
      <trkpt lat="37.727540" lon="-119.624920">
        <ele>1205.135</ele>
        <time>2018-12-27T14:52:55Z</time>
      </trkpt>
      <trkpt lat="37.727520" lon="-119.625010">
        <ele>1204.520</ele>
        <time>2018-12-27T14:53:15Z</time>
      </trkpt>
      <trkpt lat="37.727500" lon="-119.625090">
        <ele>1204.020</ele>
        <time>2018-12-27T14:53:35Z</time>
      </trkpt>
      <trkpt lat="37.727480" lon="-119.625160">
        <ele>1203.284</ele>
        <time>2018-12-27T14:53:55Z</time>
      </trkpt>
      <trkpt lat="37.727450" lon="-119.625240">
        <ele>1201.124</ele>
        <time>2018-12-27T14:54:15Z</time>
      </trkpt>
      <trkpt lat="37.727410" lon="-119.625340">
        <ele>1198.450</ele>
        <time>2018-12-27T14:54:35Z</time>
      </trkpt>
      <trkpt lat="37.727330" lon="-119.625530">
        <ele>1196.329</ele>
        <time>2018-12-27T14:54:55Z</time>
      </trkpt>
      <trkpt lat="37.727220" lon="-119.625820">
        <ele>1195.967</ele>
        <time>2018-12-27T14:55:15Z</time>
      </trkpt>
      <trkpt lat="37.727180" lon="-119.625920">
        <ele>1195.781</ele>
        <time>2018-12-27T14:55:35Z</time>
      </trkpt>
      <trkpt lat="37.727140" lon="-119.626030">
        <ele>1196.019</ele>
        <time>2018-12-27T14:55:55Z</time>
      </trkpt>
      <trkpt lat="37.727110" lon="-119.626120">
        <ele>1196.608</ele>
        <time>2018-12-27T14:56:15Z</time>
      </trkpt>
      <trkpt lat="37.727090" lon="-119.626210">
        <ele>1197.329</ele>
        <time>2018-12-27T14:56:35Z</time>
      </trkpt>
      <trkpt lat="37.727070" lon="-119.626320">
        <ele>1198.367</ele>
        <time>2018-12-27T14:56:55Z</time>
      </trkpt>
      <trkpt lat="37.727050" lon="-119.626440">
        <ele>1199.582</ele>
        <time>2018-12-27T14:57:15Z</time>
      </trkpt>
      <trkpt lat="37.727020" lon="-119.626670">
        <ele>1201.312</ele>
        <time>2018-12-27T14:57:35Z</time>
      </trkpt>
      <trkpt lat="37.727020" lon="-119.626830">
        <ele>1202.266</ele>
        <time>2018-12-27T14:57:55Z</time>
      </trkpt>
      <trkpt lat="37.727020" lon="-119.626990">
        <ele>1203.066</ele>
        <time>2018-12-27T14:58:15Z</time>
      </trkpt>
      <trkpt lat="37.727020" lon="-119.627160">
        <ele>1203.662</ele>
        <time>2018-12-27T14:58:35Z</time>
      </trkpt>
      <trkpt lat="37.727030" lon="-119.627410">
        <ele>1204.181</ele>
        <time>2018-12-27T14:58:55Z</time>
      </trkpt>
      <trkpt lat="37.727040" lon="-119.627490">
        <ele>1204.514</ele>
        <time>2018-12-27T14:59:15Z</time>
      </trkpt>
      <trkpt lat="37.727040" lon="-119.627580">
        <ele>1204.954</ele>
        <time>2018-12-27T14:59:35Z</time>
      </trkpt>
      <trkpt lat="37.727040" lon="-119.627660">
        <ele>1205.409</ele>
        <time>2018-12-27T14:59:55Z</time>
      </trkpt>
      <trkpt lat="37.727040" lon="-119.627750">
        <ele>1206.208</ele>
        <time>2018-12-27T15:00:15Z</time>
      </trkpt>
      <trkpt lat="37.727040" lon="-119.627870">
        <ele>1207.244</ele>
        <time>2018-12-27T15:00:35Z</time>
      </trkpt>
      <trkpt lat="37.727040" lon="-119.628140">
        <ele>1208.132</ele>
        <time>2018-12-27T15:00:55Z</time>
      </trkpt>
      <trkpt lat="37.727030" lon="-119.628340">
        <ele>1208.237</ele>
        <time>2018-12-27T15:01:15Z</time>
      </trkpt>
      <trkpt lat="37.727030" lon="-119.628500">
        <ele>1208.297</ele>
        <time>2018-12-27T15:01:35Z</time>
      </trkpt>
      <trkpt lat="37.727040" lon="-119.628600">
        <ele>1208.381</ele>
        <time>2018-12-27T15:01:55Z</time>
      </trkpt>
      <trkpt lat="37.727060" lon="-119.628910">
        <ele>1208.351</ele>
        <time>2018-12-27T15:02:15Z</time>
      </trkpt>
      <trkpt lat="37.727070" lon="-119.629050">
        <ele>1208.227</ele>
        <time>2018-12-27T15:02:35Z</time>
      </trkpt>
      <trkpt lat="37.727070" lon="-119.629140">
        <ele>1208.096</ele>
        <time>2018-12-27T15:02:55Z</time>
      </trkpt>
      <trkpt lat="37.727080" lon="-119.629220">
        <ele>1207.812</ele>
        <time>2018-12-27T15:03:15Z</time>
      </trkpt>
      <trkpt lat="37.727080" lon="-119.629310">
        <ele>1207.632</ele>
        <time>2018-12-27T15:03:35Z</time>
      </trkpt>
      <trkpt lat="37.727080" lon="-119.629380">
        <ele>1207.105</ele>
        <time>2018-12-27T15:03:55Z</time>
      </trkpt>
      <trkpt lat="37.727070" lon="-119.629420">
        <ele>1206.708</ele>
        <time>2018-12-27T15:04:15Z</time>
      </trkpt>
      <trkpt lat="37.727070" lon="-119.629510">
        <ele>1206.114</ele>
        <time>2018-12-27T15:04:35Z</time>
      </trkpt>
      <trkpt lat="37.727070" lon="-119.629560">
        <ele>1205.752</ele>
        <time>2018-12-27T15:04:55Z</time>
      </trkpt>
      <trkpt lat="37.727060" lon="-119.629600">
        <ele>1205.587</ele>
        <time>2018-12-27T15:05:15Z</time>
      </trkpt>
      <trkpt lat="37.727060" lon="-119.629630">
        <ele>1205.577</ele>
        <time>2018-12-27T15:05:35Z</time>
      </trkpt>
      <trkpt lat="37.727050" lon="-119.629660">
        <ele>1205.491</ele>
        <time>2018-12-27T15:05:55Z</time>
      </trkpt>
      <trkpt lat="37.727040" lon="-119.629700">
        <ele>1205.321</ele>
        <time>2018-12-27T15:06:15Z</time>
      </trkpt>
      <trkpt lat="37.727030" lon="-119.629730">
        <ele>1205.347</ele>
        <time>2018-12-27T15:06:35Z</time>
      </trkpt>
      <trkpt lat="37.727020" lon="-119.629780">
        <ele>1205.266</ele>
        <time>2018-12-27T15:06:55Z</time>
      </trkpt>
      <trkpt lat="37.727000" lon="-119.629820">
        <ele>1205.142</ele>
        <time>2018-12-27T15:07:15Z</time>
      </trkpt>
      <trkpt lat="37.726980" lon="-119.629860">
        <ele>1205.022</ele>
        <time>2018-12-27T15:07:35Z</time>
      </trkpt>
      <trkpt lat="37.726960" lon="-119.629910">
        <ele>1205.014</ele>
        <time>2018-12-27T15:07:55Z</time>
      </trkpt>
      <trkpt lat="37.726930" lon="-119.629970">
        <ele>1204.908</ele>
        <time>2018-12-27T15:08:15Z</time>
      </trkpt>
      <trkpt lat="37.726910" lon="-119.630020">
        <ele>1204.947</ele>
        <time>2018-12-27T15:08:35Z</time>
      </trkpt>
      <trkpt lat="37.726780" lon="-119.630220">
        <ele>1205.235</ele>
        <time>2018-12-27T15:08:55Z</time>
      </trkpt>
      <trkpt lat="37.726710" lon="-119.630300">
        <ele>1205.820</ele>
        <time>2018-12-27T15:09:15Z</time>
      </trkpt>
      <trkpt lat="37.726660" lon="-119.630370">
        <ele>1206.390</ele>
        <time>2018-12-27T15:09:35Z</time>
      </trkpt>
      <trkpt lat="37.726610" lon="-119.630420">
        <ele>1206.684</ele>
        <time>2018-12-27T15:09:55Z</time>
      </trkpt>
      <trkpt lat="37.726560" lon="-119.630470">
        <ele>1206.984</ele>
        <time>2018-12-27T15:10:15Z</time>
      </trkpt>
      <trkpt lat="37.726480" lon="-119.630530">
        <ele>1207.310</ele>
        <time>2018-12-27T15:10:35Z</time>
      </trkpt>
      <trkpt lat="37.726420" lon="-119.630560">
        <ele>1207.529</ele>
        <time>2018-12-27T15:10:55Z</time>
      </trkpt>
      <trkpt lat="37.726030" lon="-119.630760">
        <ele>1208.612</ele>
        <time>2018-12-27T15:11:15Z</time>
      </trkpt>
      <trkpt lat="37.725710" lon="-119.630920">
        <ele>1208.632</ele>
        <time>2018-12-27T15:11:35Z</time>
      </trkpt>
      <trkpt lat="37.725560" lon="-119.630990">
        <ele>1208.405</ele>
        <time>2018-12-27T15:11:55Z</time>
      </trkpt>
      <trkpt lat="37.725440" lon="-119.631060">
        <ele>1208.308</ele>
        <time>2018-12-27T15:12:15Z</time>
      </trkpt>
      <trkpt lat="37.725400" lon="-119.631080">
        <ele>1208.334</ele>
        <time>2018-12-27T15:12:35Z</time>
      </trkpt>
      <trkpt lat="37.725370" lon="-119.631100">
        <ele>1208.272</ele>
        <time>2018-12-27T15:12:55Z</time>
      </trkpt>
      <trkpt lat="37.725340" lon="-119.631120">
        <ele>1208.217</ele>
        <time>2018-12-27T15:13:15Z</time>
      </trkpt>
      <trkpt lat="37.725300" lon="-119.631150">
        <ele>1208.227</ele>
        <time>2018-12-27T15:13:35Z</time>
      </trkpt>
      <trkpt lat="37.725260" lon="-119.631170">
        <ele>1208.261</ele>
        <time>2018-12-27T15:13:55Z</time>
      </trkpt>
      <trkpt lat="37.725220" lon="-119.631210">
        <ele>1208.281</ele>
        <time>2018-12-27T15:14:15Z</time>
      </trkpt>
      <trkpt lat="37.725170" lon="-119.631250">
        <ele>1208.277</ele>
        <time>2018-12-27T15:14:35Z</time>
      </trkpt>
      <trkpt lat="37.725130" lon="-119.631290">
        <ele>1208.246</ele>
        <time>2018-12-27T15:14:55Z</time>
      </trkpt>
      <trkpt lat="37.725090" lon="-119.631330">
        <ele>1208.138</ele>
        <time>2018-12-27T15:15:15Z</time>
      </trkpt>
      <trkpt lat="37.725060" lon="-119.631370">
        <ele>1208.070</ele>
        <time>2018-12-27T15:15:35Z</time>
      </trkpt>
      <trkpt lat="37.725020" lon="-119.631420">
        <ele>1207.917</ele>
        <time>2018-12-27T15:15:55Z</time>
      </trkpt>
      <trkpt lat="37.724990" lon="-119.631470">
        <ele>1207.908</ele>
        <time>2018-12-27T15:16:15Z</time>
      </trkpt>
      <trkpt lat="37.724950" lon="-119.631520">
        <ele>1207.836</ele>
        <time>2018-12-27T15:16:35Z</time>
      </trkpt>
      <trkpt lat="37.724920" lon="-119.631570">
        <ele>1207.864</ele>
        <time>2018-12-27T15:16:55Z</time>
      </trkpt>
      <trkpt lat="37.724890" lon="-119.631620">
        <ele>1207.719</ele>
        <time>2018-12-27T15:17:15Z</time>
      </trkpt>
      <trkpt lat="37.724840" lon="-119.631710">
        <ele>1207.549</ele>
        <time>2018-12-27T15:17:35Z</time>
      </trkpt>
      <trkpt lat="37.724790" lon="-119.631800">
        <ele>1207.463</ele>
        <time>2018-12-27T15:17:55Z</time>
      </trkpt>
      <trkpt lat="37.724750" lon="-119.631890">
        <ele>1207.333</ele>
        <time>2018-12-27T15:18:15Z</time>
      </trkpt>
      <trkpt lat="37.724751" lon="-119.631890">
        <ele>1207.389</ele>
        <time>2018-12-27T15:18:35Z</time>
      </trkpt>
      <trkpt lat="37.724700" lon="-119.632010">
        <ele>1207.298</ele>
        <time>2018-12-27T15:18:55Z</time>
      </trkpt>
      <trkpt lat="37.724630" lon="-119.632170">
        <ele>1207.068</ele>
        <time>2018-12-27T15:19:15Z</time>
      </trkpt>
      <trkpt lat="37.724550" lon="-119.632370">
        <ele>1206.842</ele>
        <time>2018-12-27T15:19:35Z</time>
      </trkpt>
      <trkpt lat="37.724490" lon="-119.632530">
        <ele>1206.826</ele>
        <time>2018-12-27T15:19:55Z</time>
      </trkpt>
      <trkpt lat="37.724440" lon="-119.632670">
        <ele>1206.808</ele>
        <time>2018-12-27T15:20:15Z</time>
      </trkpt>
      <trkpt lat="37.724400" lon="-119.632790">
        <ele>1207.079</ele>
        <time>2018-12-27T15:20:35Z</time>
      </trkpt>
      <trkpt lat="37.724360" lon="-119.632920">
        <ele>1207.157</ele>
        <time>2018-12-27T15:20:55Z</time>
      </trkpt>
      <trkpt lat="37.724340" lon="-119.633030">
        <ele>1207.292</ele>
        <time>2018-12-27T15:21:15Z</time>
      </trkpt>
      <trkpt lat="37.724320" lon="-119.633100">
        <ele>1207.282</ele>
        <time>2018-12-27T15:21:35Z</time>
      </trkpt>
      <trkpt lat="37.724300" lon="-119.633180">
        <ele>1207.356</ele>
        <time>2018-12-27T15:21:55Z</time>
      </trkpt>
      <trkpt lat="37.724290" lon="-119.633280">
        <ele>1207.346</ele>
        <time>2018-12-27T15:22:15Z</time>
      </trkpt>
      <trkpt lat="37.724280" lon="-119.633350">
        <ele>1207.412</ele>
        <time>2018-12-27T15:22:35Z</time>
      </trkpt>
      <trkpt lat="37.724280" lon="-119.633410">
        <ele>1207.461</ele>
        <time>2018-12-27T15:22:55Z</time>
      </trkpt>
      <trkpt lat="37.724270" lon="-119.633480">
        <ele>1207.499</ele>
        <time>2018-12-27T15:23:15Z</time>
      </trkpt>
      <trkpt lat="37.724270" lon="-119.633590">
        <ele>1207.507</ele>
        <time>2018-12-27T15:23:35Z</time>
      </trkpt>
      <trkpt lat="37.724260" lon="-119.633600">
        <ele>1207.527</ele>
        <time>2018-12-27T15:23:55Z</time>
      </trkpt>
      <trkpt lat="37.724260" lon="-119.633610">
        <ele>1207.508</ele>
        <time>2018-12-27T15:24:15Z</time>
      </trkpt>
      <trkpt lat="37.724260" lon="-119.633640">
        <ele>1207.532</ele>
        <time>2018-12-27T15:24:35Z</time>
      </trkpt>
      <trkpt lat="37.724250" lon="-119.633660">
        <ele>1207.430</ele>
        <time>2018-12-27T15:24:55Z</time>
      </trkpt>
      <trkpt lat="37.724250" lon="-119.633690">
        <ele>1207.485</ele>
        <time>2018-12-27T15:25:15Z</time>
      </trkpt>
      <trkpt lat="37.724260" lon="-119.634030">
        <ele>1207.325</ele>
        <time>2018-12-27T15:25:35Z</time>
      </trkpt>
      <trkpt lat="37.724280" lon="-119.634620">
        <ele>1206.539</ele>
        <time>2018-12-27T15:25:55Z</time>
      </trkpt>
      <trkpt lat="37.724330" lon="-119.635920">
        <ele>1206.749</ele>
        <time>2018-12-27T15:26:15Z</time>
      </trkpt>
      <trkpt lat="37.724350" lon="-119.636880">
        <ele>1205.915</ele>
        <time>2018-12-27T15:26:35Z</time>
      </trkpt>
      <trkpt lat="37.724370" lon="-119.637730">
        <ele>1205.784</ele>
        <time>2018-12-27T15:26:55Z</time>
      </trkpt>
      <trkpt lat="37.724420" lon="-119.639970">
        <ele>1208.656</ele>
        <time>2018-12-27T15:27:15Z</time>
      </trkpt>
      <trkpt lat="37.724420" lon="-119.640120">
        <ele>1208.959</ele>
        <time>2018-12-27T15:27:35Z</time>
      </trkpt>
      <trkpt lat="37.724420" lon="-119.640140">
        <ele>1208.914</ele>
        <time>2018-12-27T15:27:55Z</time>
      </trkpt>
      <trkpt lat="37.724430" lon="-119.640160">
        <ele>1209.008</ele>
        <time>2018-12-27T15:28:15Z</time>
      </trkpt>
      <trkpt lat="37.724430" lon="-119.640190">
        <ele>1209.058</ele>
        <time>2018-12-27T15:28:35Z</time>
      </trkpt>
      <trkpt lat="37.724430" lon="-119.640210">
        <ele>1209.136</ele>
        <time>2018-12-27T15:28:55Z</time>
      </trkpt>
      <trkpt lat="37.724440" lon="-119.640230">
        <ele>1209.281</ele>
        <time>2018-12-27T15:29:15Z</time>
      </trkpt>
      <trkpt lat="37.724440" lon="-119.640250">
        <ele>1209.251</ele>
        <time>2018-12-27T15:29:35Z</time>
      </trkpt>
      <trkpt lat="37.724440" lon="-119.640280">
        <ele>1209.255</ele>
        <time>2018-12-27T15:29:55Z</time>
      </trkpt>
      <trkpt lat="37.724440" lon="-119.640380">
        <ele>1209.425</ele>
        <time>2018-12-27T15:30:15Z</time>
      </trkpt>
      <trkpt lat="37.724440" lon="-119.640510">
        <ele>1209.511</ele>
        <time>2018-12-27T15:30:35Z</time>
      </trkpt>
      <trkpt lat="37.724440" lon="-119.640610">
        <ele>1209.580</ele>
        <time>2018-12-27T15:30:55Z</time>
      </trkpt>
      <trkpt lat="37.724430" lon="-119.640700">
        <ele>1209.556</ele>
        <time>2018-12-27T15:31:15Z</time>
      </trkpt>
      <trkpt lat="37.724420" lon="-119.640790">
        <ele>1209.559</ele>
        <time>2018-12-27T15:31:35Z</time>
      </trkpt>
      <trkpt lat="37.724410" lon="-119.640890">
        <ele>1209.514</ele>
        <time>2018-12-27T15:31:55Z</time>
      </trkpt>
      <trkpt lat="37.724390" lon="-119.641160">
        <ele>1209.408</ele>
        <time>2018-12-27T15:32:15Z</time>
      </trkpt>
      <trkpt lat="37.724360" lon="-119.641400">
        <ele>1209.368</ele>
        <time>2018-12-27T15:32:35Z</time>
      </trkpt>
      <trkpt lat="37.724350" lon="-119.641490">
        <ele>1209.336</ele>
        <time>2018-12-27T15:32:55Z</time>
      </trkpt>
      <trkpt lat="37.724340" lon="-119.641590">
        <ele>1209.461</ele>
        <time>2018-12-27T15:33:15Z</time>
      </trkpt>
      <trkpt lat="37.724320" lon="-119.641700">
        <ele>1209.591</ele>
        <time>2018-12-27T15:33:35Z</time>
      </trkpt>
      <trkpt lat="37.724070" lon="-119.643630">
        <ele>1212.375</ele>
        <time>2018-12-27T15:33:55Z</time>
      </trkpt>
      <trkpt lat="37.724060" lon="-119.643740">
        <ele>1212.615</ele>
        <time>2018-12-27T15:34:15Z</time>
      </trkpt>
      <trkpt lat="37.724050" lon="-119.643820">
        <ele>1212.851</ele>
        <time>2018-12-27T15:34:35Z</time>
      </trkpt>
      <trkpt lat="37.724000" lon="-119.644080">
        <ele>1213.690</ele>
        <time>2018-12-27T15:34:55Z</time>
      </trkpt>
      <trkpt lat="37.723980" lon="-119.644120">
        <ele>1213.653</ele>
        <time>2018-12-27T15:35:15Z</time>
      </trkpt>
      <trkpt lat="37.723970" lon="-119.644180">
        <ele>1213.704</ele>
        <time>2018-12-27T15:35:35Z</time>
      </trkpt>
      <trkpt lat="37.723950" lon="-119.644250">
        <ele>1213.814</ele>
        <time>2018-12-27T15:35:55Z</time>
      </trkpt>
      <trkpt lat="37.723920" lon="-119.644340">
        <ele>1213.908</ele>
        <time>2018-12-27T15:36:15Z</time>
      </trkpt>
      <trkpt lat="37.723800" lon="-119.644690">
        <ele>1214.168</ele>
        <time>2018-12-27T15:36:35Z</time>
      </trkpt>
      <trkpt lat="37.723540" lon="-119.645440">
        <ele>1213.016</ele>
        <time>2018-12-27T15:36:55Z</time>
      </trkpt>
      <trkpt lat="37.723390" lon="-119.645830">
        <ele>1212.281</ele>
        <time>2018-12-27T15:37:15Z</time>
      </trkpt>
      <trkpt lat="37.723020" lon="-119.646890">
        <ele>1209.411</ele>
        <time>2018-12-27T15:37:35Z</time>
      </trkpt>
      <trkpt lat="37.722990" lon="-119.646960">
        <ele>1209.225</ele>
        <time>2018-12-27T15:37:55Z</time>
      </trkpt>
      <trkpt lat="37.722830" lon="-119.647410">
        <ele>1206.165</ele>
        <time>2018-12-27T15:38:15Z</time>
      </trkpt>
      <trkpt lat="37.722770" lon="-119.647570">
        <ele>1204.941</ele>
        <time>2018-12-27T15:38:35Z</time>
      </trkpt>
      <trkpt lat="37.722750" lon="-119.647630">
        <ele>1204.570</ele>
        <time>2018-12-27T15:38:55Z</time>
      </trkpt>
      <trkpt lat="37.722730" lon="-119.647710">
        <ele>1204.153</ele>
        <time>2018-12-27T15:39:15Z</time>
      </trkpt>
      <trkpt lat="37.722700" lon="-119.647810">
        <ele>1203.404</ele>
        <time>2018-12-27T15:39:35Z</time>
      </trkpt>
      <trkpt lat="37.722690" lon="-119.647870">
        <ele>1203.114</ele>
        <time>2018-12-27T15:39:55Z</time>
      </trkpt>
      <trkpt lat="37.722680" lon="-119.647920">
        <ele>1202.808</ele>
        <time>2018-12-27T15:40:15Z</time>
      </trkpt>
      <trkpt lat="37.722680" lon="-119.647960">
        <ele>1202.768</ele>
        <time>2018-12-27T15:40:35Z</time>
      </trkpt>
      <trkpt lat="37.722670" lon="-119.648010">
        <ele>1202.576</ele>
        <time>2018-12-27T15:40:55Z</time>
      </trkpt>
      <trkpt lat="37.722670" lon="-119.648070">
        <ele>1202.591</ele>
        <time>2018-12-27T15:41:15Z</time>
      </trkpt>
      <trkpt lat="37.722660" lon="-119.648180">
        <ele>1202.341</ele>
        <time>2018-12-27T15:41:35Z</time>
      </trkpt>
      <trkpt lat="37.722660" lon="-119.648300">
        <ele>1201.995</ele>
        <time>2018-12-27T15:41:55Z</time>
      </trkpt>
      <trkpt lat="37.722650" lon="-119.648390">
        <ele>1201.445</ele>
        <time>2018-12-27T15:42:15Z</time>
      </trkpt>
      <trkpt lat="37.722650" lon="-119.648430">
        <ele>1201.331</ele>
        <time>2018-12-27T15:42:35Z</time>
      </trkpt>
      <trkpt lat="37.722640" lon="-119.648480">
        <ele>1201.050</ele>
        <time>2018-12-27T15:42:55Z</time>
      </trkpt>
      <trkpt lat="37.722630" lon="-119.648530">
        <ele>1200.891</ele>
        <time>2018-12-27T15:43:15Z</time>
      </trkpt>
      <trkpt lat="37.722610" lon="-119.648600">
        <ele>1200.481</ele>
        <time>2018-12-27T15:43:35Z</time>
      </trkpt>
      <trkpt lat="37.722590" lon="-119.648660">
        <ele>1200.119</ele>
        <time>2018-12-27T15:43:55Z</time>
      </trkpt>
      <trkpt lat="37.722580" lon="-119.648710">
        <ele>1199.908</ele>
        <time>2018-12-27T15:44:15Z</time>
      </trkpt>
      <trkpt lat="37.722560" lon="-119.648760">
        <ele>1199.592</ele>
        <time>2018-12-27T15:44:35Z</time>
      </trkpt>
      <trkpt lat="37.722550" lon="-119.648790">
        <ele>1199.580</ele>
        <time>2018-12-27T15:44:55Z</time>
      </trkpt>
      <trkpt lat="37.722050" lon="-119.649940">
        <ele>1198.285</ele>
        <time>2018-12-27T15:45:15Z</time>
      </trkpt>
      <trkpt lat="37.721910" lon="-119.650280">
        <ele>1198.285</ele>
        <time>2018-12-27T15:45:35Z</time>
      </trkpt>
      <trkpt lat="37.721790" lon="-119.650570">
        <ele>1197.649</ele>
        <time>2018-12-27T15:45:55Z</time>
      </trkpt>
      <trkpt lat="37.721750" lon="-119.650680">
        <ele>1197.319</ele>
        <time>2018-12-27T15:46:15Z</time>
      </trkpt>
      <trkpt lat="37.721730" lon="-119.650730">
        <ele>1197.045</ele>
        <time>2018-12-27T15:46:35Z</time>
      </trkpt>
      <trkpt lat="37.721720" lon="-119.650790">
        <ele>1196.714</ele>
        <time>2018-12-27T15:46:55Z</time>
      </trkpt>
      <trkpt lat="37.721710" lon="-119.650840">
        <ele>1196.312</ele>
        <time>2018-12-27T15:47:15Z</time>
      </trkpt>
      <trkpt lat="37.721700" lon="-119.650910">
        <ele>1196.032</ele>
        <time>2018-12-27T15:47:35Z</time>
      </trkpt>
      <trkpt lat="37.721700" lon="-119.651140">
        <ele>1195.405</ele>
        <time>2018-12-27T15:47:55Z</time>
      </trkpt>
      <trkpt lat="37.721690" lon="-119.651270">
        <ele>1195.308</ele>
        <time>2018-12-27T15:48:15Z</time>
      </trkpt>
      <trkpt lat="37.721690" lon="-119.651320">
        <ele>1195.364</ele>
        <time>2018-12-27T15:48:35Z</time>
      </trkpt>
      <trkpt lat="37.721680" lon="-119.651360">
        <ele>1195.412</ele>
        <time>2018-12-27T15:48:55Z</time>
      </trkpt>
      <trkpt lat="37.721680" lon="-119.651410">
        <ele>1195.547</ele>
        <time>2018-12-27T15:49:15Z</time>
      </trkpt>
      <trkpt lat="37.721660" lon="-119.651460">
        <ele>1195.457</ele>
        <time>2018-12-27T15:49:35Z</time>
      </trkpt>
      <trkpt lat="37.721480" lon="-119.652150">
        <ele>1195.381</ele>
        <time>2018-12-27T15:49:55Z</time>
      </trkpt>
      <trkpt lat="37.721460" lon="-119.652260">
        <ele>1195.321</ele>
        <time>2018-12-27T15:50:15Z</time>
      </trkpt>
      <trkpt lat="37.721440" lon="-119.652330">
        <ele>1195.337</ele>
        <time>2018-12-27T15:50:35Z</time>
      </trkpt>
      <trkpt lat="37.721430" lon="-119.652380">
        <ele>1195.296</ele>
        <time>2018-12-27T15:50:55Z</time>
      </trkpt>
      <trkpt lat="37.721420" lon="-119.652440">
        <ele>1195.276</ele>
        <time>2018-12-27T15:51:15Z</time>
      </trkpt>
      <trkpt lat="37.721370" lon="-119.652730">
        <ele>1195.290</ele>
        <time>2018-12-27T15:51:35Z</time>
      </trkpt>
      <trkpt lat="37.721330" lon="-119.653050">
        <ele>1195.319</ele>
        <time>2018-12-27T15:51:55Z</time>
      </trkpt>
      <trkpt lat="37.721300" lon="-119.653220">
        <ele>1195.308</ele>
        <time>2018-12-27T15:52:15Z</time>
      </trkpt>
      <trkpt lat="37.721290" lon="-119.653310">
        <ele>1195.390</ele>
        <time>2018-12-27T15:52:35Z</time>
      </trkpt>
      <trkpt lat="37.721280" lon="-119.653360">
        <ele>1195.388</ele>
        <time>2018-12-27T15:52:55Z</time>
      </trkpt>
      <trkpt lat="37.721260" lon="-119.653410">
        <ele>1195.173</ele>
        <time>2018-12-27T15:53:15Z</time>
      </trkpt>
      <trkpt lat="37.721240" lon="-119.653460">
        <ele>1195.153</ele>
        <time>2018-12-27T15:53:35Z</time>
      </trkpt>
      <trkpt lat="37.721090" lon="-119.653820">
        <ele>1194.967</ele>
        <time>2018-12-27T15:53:55Z</time>
      </trkpt>
      <trkpt lat="37.720910" lon="-119.654240">
        <ele>1195.137</ele>
        <time>2018-12-27T15:54:15Z</time>
      </trkpt>
      <trkpt lat="37.720770" lon="-119.654520">
        <ele>1195.793</ele>
        <time>2018-12-27T15:54:35Z</time>
      </trkpt>
      <trkpt lat="37.720730" lon="-119.654600">
        <ele>1195.712</ele>
        <time>2018-12-27T15:54:55Z</time>
      </trkpt>
      <trkpt lat="37.720710" lon="-119.654650">
        <ele>1195.745</ele>
        <time>2018-12-27T15:55:15Z</time>
      </trkpt>
      <trkpt lat="37.720670" lon="-119.654710">
        <ele>1195.647</ele>
        <time>2018-12-27T15:55:35Z</time>
      </trkpt>
      <trkpt lat="37.720640" lon="-119.654750">
        <ele>1195.711</ele>
        <time>2018-12-27T15:55:55Z</time>
      </trkpt>
      <trkpt lat="37.720610" lon="-119.654790">
        <ele>1195.708</ele>
        <time>2018-12-27T15:56:15Z</time>
      </trkpt>
      <trkpt lat="37.720590" lon="-119.654820">
        <ele>1195.727</ele>
        <time>2018-12-27T15:56:35Z</time>
      </trkpt>
      <trkpt lat="37.720560" lon="-119.654850">
        <ele>1195.775</ele>
        <time>2018-12-27T15:56:55Z</time>
      </trkpt>
      <trkpt lat="37.720200" lon="-119.655190">
        <ele>1195.310</ele>
        <time>2018-12-27T15:57:15Z</time>
      </trkpt>
      <trkpt lat="37.720170" lon="-119.655230">
        <ele>1195.210</ele>
        <time>2018-12-27T15:57:35Z</time>
      </trkpt>
      <trkpt lat="37.720120" lon="-119.655290">
        <ele>1195.024</ele>
        <time>2018-12-27T15:57:55Z</time>
      </trkpt>
      <trkpt lat="37.720090" lon="-119.655340">
        <ele>1195.014</ele>
        <time>2018-12-27T15:58:15Z</time>
      </trkpt>
      <trkpt lat="37.720060" lon="-119.655380">
        <ele>1195.020</ele>
        <time>2018-12-27T15:58:35Z</time>
      </trkpt>
      <trkpt lat="37.720030" lon="-119.655420">
        <ele>1195.089</ele>
        <time>2018-12-27T15:58:55Z</time>
      </trkpt>
      <trkpt lat="37.719820" lon="-119.655770">
        <ele>1194.976</ele>
        <time>2018-12-27T15:59:15Z</time>
      </trkpt>
      <trkpt lat="37.719640" lon="-119.656050">
        <ele>1194.990</ele>
        <time>2018-12-27T15:59:35Z</time>
      </trkpt>
      <trkpt lat="37.719600" lon="-119.656110">
        <ele>1194.819</ele>
        <time>2018-12-27T15:59:55Z</time>
      </trkpt>
      <trkpt lat="37.719560" lon="-119.656140">
        <ele>1194.708</ele>
        <time>2018-12-27T16:00:15Z</time>
      </trkpt>
      <trkpt lat="37.719520" lon="-119.656170">
        <ele>1194.690</ele>
        <time>2018-12-27T16:00:35Z</time>
      </trkpt>
      <trkpt lat="37.719480" lon="-119.656200">
        <ele>1194.598</ele>
        <time>2018-12-27T16:00:55Z</time>
      </trkpt>
      <trkpt lat="37.719260" lon="-119.656340">
        <ele>1193.863</ele>
        <time>2018-12-27T16:01:15Z</time>
      </trkpt>
      <trkpt lat="37.719200" lon="-119.656390">
        <ele>1193.523</ele>
        <time>2018-12-27T16:01:35Z</time>
      </trkpt>
      <trkpt lat="37.719160" lon="-119.656420">
        <ele>1193.397</ele>
        <time>2018-12-27T16:01:55Z</time>
      </trkpt>
      <trkpt lat="37.719100" lon="-119.656470">
        <ele>1193.057</ele>
        <time>2018-12-27T16:02:15Z</time>
      </trkpt>
      <trkpt lat="37.719070" lon="-119.656500">
        <ele>1192.863</ele>
        <time>2018-12-27T16:02:35Z</time>
      </trkpt>
      <trkpt lat="37.719040" lon="-119.656540">
        <ele>1192.652</ele>
        <time>2018-12-27T16:02:55Z</time>
      </trkpt>
      <trkpt lat="37.719010" lon="-119.656590">
        <ele>1192.319</ele>
        <time>2018-12-27T16:03:15Z</time>
      </trkpt>
      <trkpt lat="37.718990" lon="-119.656630">
        <ele>1192.109</ele>
        <time>2018-12-27T16:03:35Z</time>
      </trkpt>
      <trkpt lat="37.718970" lon="-119.656690">
        <ele>1191.819</ele>
        <time>2018-12-27T16:03:55Z</time>
      </trkpt>
      <trkpt lat="37.718950" lon="-119.656750">
        <ele>1191.508</ele>
        <time>2018-12-27T16:04:15Z</time>
      </trkpt>
      <trkpt lat="37.718930" lon="-119.656830">
        <ele>1191.244</ele>
        <time>2018-12-27T16:04:35Z</time>
      </trkpt>
      <trkpt lat="37.718920" lon="-119.656880">
        <ele>1190.982</ele>
        <time>2018-12-27T16:04:55Z</time>
      </trkpt>
      <trkpt lat="37.718910" lon="-119.656930">
        <ele>1190.767</ele>
        <time>2018-12-27T16:05:15Z</time>
      </trkpt>
      <trkpt lat="37.718900" lon="-119.656990">
        <ele>1190.537</ele>
        <time>2018-12-27T16:05:35Z</time>
      </trkpt>
      <trkpt lat="37.718900" lon="-119.657070">
        <ele>1190.371</ele>
        <time>2018-12-27T16:05:55Z</time>
      </trkpt>
      <trkpt lat="37.718900" lon="-119.657140">
        <ele>1190.171</ele>
        <time>2018-12-27T16:06:15Z</time>
      </trkpt>
      <trkpt lat="37.718900" lon="-119.657220">
        <ele>1189.997</ele>
        <time>2018-12-27T16:06:35Z</time>
      </trkpt>
      <trkpt lat="37.718900" lon="-119.657300">
        <ele>1189.686</ele>
        <time>2018-12-27T16:06:55Z</time>
      </trkpt>
      <trkpt lat="37.718910" lon="-119.657360">
        <ele>1189.517</ele>
        <time>2018-12-27T16:07:15Z</time>
      </trkpt>
      <trkpt lat="37.718920" lon="-119.657410">
        <ele>1189.487</ele>
        <time>2018-12-27T16:07:35Z</time>
      </trkpt>
      <trkpt lat="37.718940" lon="-119.657460">
        <ele>1189.415</ele>
        <time>2018-12-27T16:07:55Z</time>
      </trkpt>
      <trkpt lat="37.718950" lon="-119.657500">
        <ele>1189.308</ele>
        <time>2018-12-27T16:08:15Z</time>
      </trkpt>
      <trkpt lat="37.719010" lon="-119.657690">
        <ele>1188.954</ele>
        <time>2018-12-27T16:08:35Z</time>
      </trkpt>
      <trkpt lat="37.719050" lon="-119.657800">
        <ele>1188.972</ele>
        <time>2018-12-27T16:08:55Z</time>
      </trkpt>
      <trkpt lat="37.719090" lon="-119.657890">
        <ele>1188.967</ele>
        <time>2018-12-27T16:09:15Z</time>
      </trkpt>
      <trkpt lat="37.719120" lon="-119.658010">
        <ele>1188.667</ele>
        <time>2018-12-27T16:09:35Z</time>
      </trkpt>
      <trkpt lat="37.719280" lon="-119.658560">
        <ele>1187.781</ele>
        <time>2018-12-27T16:09:55Z</time>
      </trkpt>
      <trkpt lat="37.719400" lon="-119.659030">
        <ele>1188.011</ele>
        <time>2018-12-27T16:10:15Z</time>
      </trkpt>
      <trkpt lat="37.719410" lon="-119.659090">
        <ele>1188.137</ele>
        <time>2018-12-27T16:10:35Z</time>
      </trkpt>
      <trkpt lat="37.719420" lon="-119.659150">
        <ele>1188.276</ele>
        <time>2018-12-27T16:10:55Z</time>
      </trkpt>
      <trkpt lat="37.719430" lon="-119.659230">
        <ele>1188.341</ele>
        <time>2018-12-27T16:11:15Z</time>
      </trkpt>
      <trkpt lat="37.719430" lon="-119.659300">
        <ele>1188.381</ele>
        <time>2018-12-27T16:11:35Z</time>
      </trkpt>
      <trkpt lat="37.719420" lon="-119.659390">
        <ele>1188.309</ele>
        <time>2018-12-27T16:11:55Z</time>
      </trkpt>
      <trkpt lat="37.719420" lon="-119.659450">
        <ele>1188.408</ele>
        <time>2018-12-27T16:12:15Z</time>
      </trkpt>
      <trkpt lat="37.719420" lon="-119.659530">
        <ele>1188.577</ele>
        <time>2018-12-27T16:12:35Z</time>
      </trkpt>
      <trkpt lat="37.719410" lon="-119.659570">
        <ele>1188.535</ele>
        <time>2018-12-27T16:12:55Z</time>
      </trkpt>
      <trkpt lat="37.719400" lon="-119.659620">
        <ele>1188.460</ele>
        <time>2018-12-27T16:13:15Z</time>
      </trkpt>
      <trkpt lat="37.719380" lon="-119.659700">
        <ele>1188.390</ele>
        <time>2018-12-27T16:13:35Z</time>
      </trkpt>
      <trkpt lat="37.719340" lon="-119.659810">
        <ele>1188.054</ele>
        <time>2018-12-27T16:13:55Z</time>
      </trkpt>
      <trkpt lat="37.719260" lon="-119.660060">
        <ele>1187.734</ele>
        <time>2018-12-27T16:14:15Z</time>
      </trkpt>
      <trkpt lat="37.719140" lon="-119.660320">
        <ele>1187.240</ele>
        <time>2018-12-27T16:14:35Z</time>
      </trkpt>
      <trkpt lat="37.719010" lon="-119.660630">
        <ele>1187.189</ele>
        <time>2018-12-27T16:14:55Z</time>
      </trkpt>
      <trkpt lat="37.718970" lon="-119.660710">
        <ele>1187.198</ele>
        <time>2018-12-27T16:15:15Z</time>
      </trkpt>
      <trkpt lat="37.718930" lon="-119.660760">
        <ele>1187.015</ele>
        <time>2018-12-27T16:15:35Z</time>
      </trkpt>
      <trkpt lat="37.718890" lon="-119.660820">
        <ele>1187.026</ele>
        <time>2018-12-27T16:15:55Z</time>
      </trkpt>
      <trkpt lat="37.718790" lon="-119.660920">
        <ele>1186.708</ele>
        <time>2018-12-27T16:16:15Z</time>
      </trkpt>
      <trkpt lat="37.718630" lon="-119.661060">
        <ele>1186.462</ele>
        <time>2018-12-27T16:16:35Z</time>
      </trkpt>
      <trkpt lat="37.718290" lon="-119.661340">
        <ele>1185.850</ele>
        <time>2018-12-27T16:16:55Z</time>
      </trkpt>
      <trkpt lat="37.718080" lon="-119.661530">
        <ele>1185.785</ele>
        <time>2018-12-27T16:17:15Z</time>
      </trkpt>
      <trkpt lat="37.717970" lon="-119.661620">
        <ele>1185.685</ele>
        <time>2018-12-27T16:17:35Z</time>
      </trkpt>
      <trkpt lat="37.717900" lon="-119.661680">
        <ele>1185.589</ele>
        <time>2018-12-27T16:17:55Z</time>
      </trkpt>
      <trkpt lat="37.717840" lon="-119.661730">
        <ele>1185.539</ele>
        <time>2018-12-27T16:18:15Z</time>
      </trkpt>
      <trkpt lat="37.717770" lon="-119.661780">
        <ele>1185.595</ele>
        <time>2018-12-27T16:18:35Z</time>
      </trkpt>
      <trkpt lat="37.717700" lon="-119.661840">
        <ele>1185.534</ele>
        <time>2018-12-27T16:18:55Z</time>
      </trkpt>
      <trkpt lat="37.717610" lon="-119.661900">
        <ele>1185.438</ele>
        <time>2018-12-27T16:19:15Z</time>
      </trkpt>
      <trkpt lat="37.717490" lon="-119.661970">
        <ele>1185.270</ele>
        <time>2018-12-27T16:19:35Z</time>
      </trkpt>
      <trkpt lat="37.717370" lon="-119.662050">
        <ele>1185.017</ele>
        <time>2018-12-27T16:19:55Z</time>
      </trkpt>
      <trkpt lat="37.717330" lon="-119.662090">
        <ele>1185.008</ele>
        <time>2018-12-27T16:20:15Z</time>
      </trkpt>
      <trkpt lat="37.717310" lon="-119.662110">
        <ele>1184.926</ele>
        <time>2018-12-27T16:20:35Z</time>
      </trkpt>
      <trkpt lat="37.717290" lon="-119.662130">
        <ele>1184.934</ele>
        <time>2018-12-27T16:20:55Z</time>
      </trkpt>
      <trkpt lat="37.717260" lon="-119.662160">
        <ele>1184.939</ele>
        <time>2018-12-27T16:21:15Z</time>
      </trkpt>
      <trkpt lat="37.717210" lon="-119.662220">
        <ele>1184.889</ele>
        <time>2018-12-27T16:21:35Z</time>
      </trkpt>
      <trkpt lat="37.717050" lon="-119.662450">
        <ele>1184.633</ele>
        <time>2018-12-27T16:21:55Z</time>
      </trkpt>
      <trkpt lat="37.716970" lon="-119.662680">
        <ele>1184.523</ele>
        <time>2018-12-27T16:22:15Z</time>
      </trkpt>
      <trkpt lat="37.716920" lon="-119.662970">
        <ele>1184.559</ele>
        <time>2018-12-27T16:22:35Z</time>
      </trkpt>
      <trkpt lat="37.716870" lon="-119.663250">
        <ele>1184.298</ele>
        <time>2018-12-27T16:22:55Z</time>
      </trkpt>
      <trkpt lat="37.716760" lon="-119.664040">
        <ele>1183.885</ele>
        <time>2018-12-27T16:23:15Z</time>
      </trkpt>
      <trkpt lat="37.716700" lon="-119.664550">
        <ele>1182.789</ele>
        <time>2018-12-27T16:23:35Z</time>
      </trkpt>
      <trkpt lat="37.716670" lon="-119.664870">
        <ele>1181.917</ele>
        <time>2018-12-27T16:23:55Z</time>
      </trkpt>
      <trkpt lat="37.716670" lon="-119.665030">
        <ele>1181.508</ele>
        <time>2018-12-27T16:24:15Z</time>
      </trkpt>
      <trkpt lat="37.716680" lon="-119.665230">
        <ele>1181.161</ele>
        <time>2018-12-27T16:24:35Z</time>
      </trkpt>
      <trkpt lat="37.716730" lon="-119.665440">
        <ele>1181.049</ele>
        <time>2018-12-27T16:24:55Z</time>
      </trkpt>
      <trkpt lat="37.716820" lon="-119.665770">
        <ele>1181.254</ele>
        <time>2018-12-27T16:25:15Z</time>
      </trkpt>
      <trkpt lat="37.716890" lon="-119.665990">
        <ele>1181.464</ele>
        <time>2018-12-27T16:25:35Z</time>
      </trkpt>
      <trkpt lat="37.716886" lon="-119.665989">
        <ele>1181.398</ele>
        <time>2018-12-27T16:25:55Z</time>
      </trkpt>
      <trkpt lat="37.716770" lon="-119.666250">
        <ele>1179.848</ele>
        <time>2018-12-27T16:26:15Z</time>
      </trkpt>
      <trkpt lat="37.716520" lon="-119.666190">
        <ele>1178.344</ele>
        <time>2018-12-27T16:26:35Z</time>
      </trkpt>
      <trkpt lat="37.716450" lon="-119.666180">
        <ele>1180.193</ele>
        <time>2018-12-27T16:26:55Z</time>
      </trkpt>
      <trkpt lat="37.716350" lon="-119.666140">
        <ele>1182.667</ele>
        <time>2018-12-27T16:27:15Z</time>
      </trkpt>
      <trkpt lat="37.716280" lon="-119.666090">
        <ele>1184.281</ele>
        <time>2018-12-27T16:27:35Z</time>
      </trkpt>
      <trkpt lat="37.716240" lon="-119.666040">
        <ele>1184.919</ele>
        <time>2018-12-27T16:27:55Z</time>
      </trkpt>
      <trkpt lat="37.716190" lon="-119.665970">
        <ele>1185.308</ele>
        <time>2018-12-27T16:28:15Z</time>
      </trkpt>
      <trkpt lat="37.716170" lon="-119.665890">
        <ele>1185.169</ele>
        <time>2018-12-27T16:28:35Z</time>
      </trkpt>
      <trkpt lat="37.716110" lon="-119.665740">
        <ele>1185.147</ele>
        <time>2018-12-27T16:28:55Z</time>
      </trkpt>
      <trkpt lat="37.716070" lon="-119.665640">
        <ele>1185.032</ele>
        <time>2018-12-27T16:29:15Z</time>
      </trkpt>
      <trkpt lat="37.716020" lon="-119.665540">
        <ele>1185.042</ele>
        <time>2018-12-27T16:29:35Z</time>
      </trkpt>
      <trkpt lat="37.715950" lon="-119.665450">
        <ele>1185.296</ele>
        <time>2018-12-27T16:29:55Z</time>
      </trkpt>
      <trkpt lat="37.715900" lon="-119.665400">
        <ele>1185.036</ele>
        <time>2018-12-27T16:30:15Z</time>
      </trkpt>
      <trkpt lat="37.715810" lon="-119.665330">
        <ele>1184.552</ele>
        <time>2018-12-27T16:30:35Z</time>
      </trkpt>
      <trkpt lat="37.715710" lon="-119.665270">
        <ele>1184.391</ele>
        <time>2018-12-27T16:30:55Z</time>
      </trkpt>
      <trkpt lat="37.715560" lon="-119.665190">
        <ele>1184.369</ele>
        <time>2018-12-27T16:31:15Z</time>
      </trkpt>
      <trkpt lat="37.715360" lon="-119.665090">
        <ele>1184.604</ele>
        <time>2018-12-27T16:31:35Z</time>
      </trkpt>
      <trkpt lat="37.715220" lon="-119.665000">
        <ele>1184.924</ele>
        <time>2018-12-27T16:31:55Z</time>
      </trkpt>
      <trkpt lat="37.715060" lon="-119.664870">
        <ele>1185.208</ele>
        <time>2018-12-27T16:32:15Z</time>
      </trkpt>
      <trkpt lat="37.714970" lon="-119.664800">
        <ele>1186.079</ele>
        <time>2018-12-27T16:32:35Z</time>
      </trkpt>
      <trkpt lat="37.714910" lon="-119.664740">
        <ele>1186.327</ele>
        <time>2018-12-27T16:32:55Z</time>
      </trkpt>
      <trkpt lat="37.714810" lon="-119.664620">
        <ele>1187.032</ele>
        <time>2018-12-27T16:33:15Z</time>
      </trkpt>
      <trkpt lat="37.714740" lon="-119.664520">
        <ele>1188.162</ele>
        <time>2018-12-27T16:33:35Z</time>
      </trkpt>
      <trkpt lat="37.714690" lon="-119.664430">
        <ele>1189.086</ele>
        <time>2018-12-27T16:33:55Z</time>
      </trkpt>
      <trkpt lat="37.714650" lon="-119.664300">
        <ele>1189.456</ele>
        <time>2018-12-27T16:34:15Z</time>
      </trkpt>
      <trkpt lat="37.714640" lon="-119.664220">
        <ele>1189.752</ele>
        <time>2018-12-27T16:34:35Z</time>
      </trkpt>
      <trkpt lat="37.714640" lon="-119.664070">
        <ele>1189.871</ele>
        <time>2018-12-27T16:34:55Z</time>
      </trkpt>
      <trkpt lat="37.714680" lon="-119.663760">
        <ele>1190.187</ele>
        <time>2018-12-27T16:35:15Z</time>
      </trkpt>
      <trkpt lat="37.714770" lon="-119.663240">
        <ele>1190.642</ele>
        <time>2018-12-27T16:35:35Z</time>
      </trkpt>
      <trkpt lat="37.714870" lon="-119.662710">
        <ele>1191.326</ele>
        <time>2018-12-27T16:35:55Z</time>
      </trkpt>
      <trkpt lat="37.714950" lon="-119.662450">
        <ele>1191.908</ele>
        <time>2018-12-27T16:36:15Z</time>
      </trkpt>
      <trkpt lat="37.715040" lon="-119.662210">
        <ele>1192.341</ele>
        <time>2018-12-27T16:36:35Z</time>
      </trkpt>
      <trkpt lat="37.715090" lon="-119.661960">
        <ele>1193.049</ele>
        <time>2018-12-27T16:36:55Z</time>
      </trkpt>
      <trkpt lat="37.715100" lon="-119.661600">
        <ele>1194.144</ele>
        <time>2018-12-27T16:37:15Z</time>
      </trkpt>
      <trkpt lat="37.715170" lon="-119.660830">
        <ele>1194.064</ele>
        <time>2018-12-27T16:37:35Z</time>
      </trkpt>
      <trkpt lat="37.715200" lon="-119.660720">
        <ele>1193.998</ele>
        <time>2018-12-27T16:37:55Z</time>
      </trkpt>
      <trkpt lat="37.715240" lon="-119.660610">
        <ele>1193.768</ele>
        <time>2018-12-27T16:38:15Z</time>
      </trkpt>
      <trkpt lat="37.715410" lon="-119.660280">
        <ele>1192.754</ele>
        <time>2018-12-27T16:38:35Z</time>
      </trkpt>
      <trkpt lat="37.715830" lon="-119.659560">
        <ele>1192.763</ele>
        <time>2018-12-27T16:38:55Z</time>
      </trkpt>
      <trkpt lat="37.716190" lon="-119.658960">
        <ele>1193.435</ele>
        <time>2018-12-27T16:39:15Z</time>
      </trkpt>
      <trkpt lat="37.716410" lon="-119.658540">
        <ele>1193.286</ele>
        <time>2018-12-27T16:39:35Z</time>
      </trkpt>
      <trkpt lat="37.716520" lon="-119.658250">
        <ele>1193.414</ele>
        <time>2018-12-27T16:39:55Z</time>
      </trkpt>
      <trkpt lat="37.716620" lon="-119.657960">
        <ele>1193.608</ele>
        <time>2018-12-27T16:40:15Z</time>
      </trkpt>
      <trkpt lat="37.716680" lon="-119.657690">
        <ele>1194.026</ele>
        <time>2018-12-27T16:40:35Z</time>
      </trkpt>
      <trkpt lat="37.716700" lon="-119.657400">
        <ele>1194.954</ele>
        <time>2018-12-27T16:40:55Z</time>
      </trkpt>
      <trkpt lat="37.716690" lon="-119.657110">
        <ele>1195.819</ele>
        <time>2018-12-27T16:41:15Z</time>
      </trkpt>
      <trkpt lat="37.716670" lon="-119.656810">
        <ele>1198.279</ele>
        <time>2018-12-27T16:41:35Z</time>
      </trkpt>
      <trkpt lat="37.716700" lon="-119.656600">
        <ele>1199.013</ele>
        <time>2018-12-27T16:41:55Z</time>
      </trkpt>
      <trkpt lat="37.716760" lon="-119.656310">
        <ele>1199.253</ele>
        <time>2018-12-27T16:42:15Z</time>
      </trkpt>
      <trkpt lat="37.716860" lon="-119.655950">
        <ele>1197.679</ele>
        <time>2018-12-27T16:42:35Z</time>
      </trkpt>
      <trkpt lat="37.716980" lon="-119.655390">
        <ele>1193.038</ele>
        <time>2018-12-27T16:42:55Z</time>
      </trkpt>
      <trkpt lat="37.717120" lon="-119.654510">
        <ele>1193.343</ele>
        <time>2018-12-27T16:43:15Z</time>
      </trkpt>
      <trkpt lat="37.717220" lon="-119.653590">
        <ele>1194.164</ele>
        <time>2018-12-27T16:43:35Z</time>
      </trkpt>
      <trkpt lat="37.717350" lon="-119.652830">
        <ele>1194.810</ele>
        <time>2018-12-27T16:43:55Z</time>
      </trkpt>
      <trkpt lat="37.717480" lon="-119.652360">
        <ele>1195.308</ele>
        <time>2018-12-27T16:44:15Z</time>
      </trkpt>
      <trkpt lat="37.717483" lon="-119.652363">
        <ele>1195.377</ele>
        <time>2018-12-27T16:44:35Z</time>
      </trkpt>
      <trkpt lat="37.717480" lon="-119.652220">
        <ele>1195.855</ele>
        <time>2018-12-27T16:44:55Z</time>
      </trkpt>
      <trkpt lat="37.717470" lon="-119.652170">
        <ele>1196.110</ele>
        <time>2018-12-27T16:45:15Z</time>
      </trkpt>
      <trkpt lat="37.717470" lon="-119.652120">
        <ele>1196.310</ele>
        <time>2018-12-27T16:45:35Z</time>
      </trkpt>
      <trkpt lat="37.717450" lon="-119.652090">
        <ele>1196.614</ele>
        <time>2018-12-27T16:45:55Z</time>
      </trkpt>
      <trkpt lat="37.717440" lon="-119.652050">
        <ele>1197.474</ele>
        <time>2018-12-27T16:46:15Z</time>
      </trkpt>
      <trkpt lat="37.717410" lon="-119.652020">
        <ele>1198.310</ele>
        <time>2018-12-27T16:46:35Z</time>
      </trkpt>
      <trkpt lat="37.717390" lon="-119.651990">
        <ele>1199.169</ele>
        <time>2018-12-27T16:46:55Z</time>
      </trkpt>
      <trkpt lat="37.717360" lon="-119.651980">
        <ele>1199.547</ele>
        <time>2018-12-27T16:47:15Z</time>
      </trkpt>
      <trkpt lat="37.717320" lon="-119.651950">
        <ele>1200.029</ele>
        <time>2018-12-27T16:47:35Z</time>
      </trkpt>
      <trkpt lat="37.717230" lon="-119.651930">
        <ele>1199.821</ele>
        <time>2018-12-27T16:47:55Z</time>
      </trkpt>
      <trkpt lat="37.716990" lon="-119.652080">
        <ele>1199.108</ele>
        <time>2018-12-27T16:48:15Z</time>
      </trkpt>
      <trkpt lat="37.716770" lon="-119.652260">
        <ele>1200.357</ele>
        <time>2018-12-27T16:48:35Z</time>
      </trkpt>
      <trkpt lat="37.716770" lon="-119.652270">
        <ele>1200.315</ele>
        <time>2018-12-27T16:48:55Z</time>
      </trkpt>
      <trkpt lat="37.716560" lon="-119.652480">
        <ele>1201.890</ele>
        <time>2018-12-27T16:49:15Z</time>
      </trkpt>
      <trkpt lat="37.716500" lon="-119.652540">
        <ele>1202.290</ele>
        <time>2018-12-27T16:49:35Z</time>
      </trkpt>
      <trkpt lat="37.716450" lon="-119.652610">
        <ele>1202.594</ele>
        <time>2018-12-27T16:49:55Z</time>
      </trkpt>
      <trkpt lat="37.716410" lon="-119.652680">
        <ele>1202.874</ele>
        <time>2018-12-27T16:50:15Z</time>
      </trkpt>
      <trkpt lat="37.716350" lon="-119.652780">
        <ele>1203.320</ele>
        <time>2018-12-27T16:50:35Z</time>
      </trkpt>
      <trkpt lat="37.716310" lon="-119.652850">
        <ele>1203.689</ele>
        <time>2018-12-27T16:50:55Z</time>
      </trkpt>
      <trkpt lat="37.716150" lon="-119.653310">
        <ele>1204.628</ele>
        <time>2018-12-27T16:51:15Z</time>
      </trkpt>
      <trkpt lat="37.716020" lon="-119.653870">
        <ele>1205.689</ele>
        <time>2018-12-27T16:51:35Z</time>
      </trkpt>
      <trkpt lat="37.715860" lon="-119.654500">
        <ele>1211.017</ele>
        <time>2018-12-27T16:51:55Z</time>
      </trkpt>
      <trkpt lat="37.715690" lon="-119.655120">
        <ele>1214.008</ele>
        <time>2018-12-27T16:52:15Z</time>
      </trkpt>
      <trkpt lat="37.715480" lon="-119.655690">
        <ele>1216.485</ele>
        <time>2018-12-27T16:52:35Z</time>
      </trkpt>
      <trkpt lat="37.715330" lon="-119.656020">
        <ele>1221.263</ele>
        <time>2018-12-27T16:52:55Z</time>
      </trkpt>
      <trkpt lat="37.715180" lon="-119.656300">
        <ele>1224.278</ele>
        <time>2018-12-27T16:53:15Z</time>
      </trkpt>
      <trkpt lat="37.715080" lon="-119.656500">
        <ele>1224.968</ele>
        <time>2018-12-27T16:53:35Z</time>
      </trkpt>
      <trkpt lat="37.714760" lon="-119.657000">
        <ele>1227.522</ele>
        <time>2018-12-27T16:53:55Z</time>
      </trkpt>
      <trkpt lat="37.714440" lon="-119.657440">
        <ele>1228.292</ele>
        <time>2018-12-27T16:54:15Z</time>
      </trkpt>
      <trkpt lat="37.714250" lon="-119.657740">
        <ele>1229.858</ele>
        <time>2018-12-27T16:54:35Z</time>
      </trkpt>
      <trkpt lat="37.714180" lon="-119.657860">
        <ele>1232.517</ele>
        <time>2018-12-27T16:54:55Z</time>
      </trkpt>
      <trkpt lat="37.714110" lon="-119.657990">
        <ele>1234.961</ele>
        <time>2018-12-27T16:55:15Z</time>
      </trkpt>
      <trkpt lat="37.714010" lon="-119.658210">
        <ele>1237.121</ele>
        <time>2018-12-27T16:55:35Z</time>
      </trkpt>
      <trkpt lat="37.713930" lon="-119.658430">
        <ele>1236.413</ele>
        <time>2018-12-27T16:55:55Z</time>
      </trkpt>
      <trkpt lat="37.713830" lon="-119.658740">
        <ele>1237.808</ele>
        <time>2018-12-27T16:56:15Z</time>
      </trkpt>
      <trkpt lat="37.713640" lon="-119.659240">
        <ele>1238.869</ele>
        <time>2018-12-27T16:56:35Z</time>
      </trkpt>
      <trkpt lat="37.713490" lon="-119.659570">
        <ele>1245.377</ele>
        <time>2018-12-27T16:56:55Z</time>
      </trkpt>
      <trkpt lat="37.713340" lon="-119.659830">
        <ele>1248.092</ele>
        <time>2018-12-27T16:57:15Z</time>
      </trkpt>
      <trkpt lat="37.713180" lon="-119.660090">
        <ele>1249.082</ele>
        <time>2018-12-27T16:57:35Z</time>
      </trkpt>
      <trkpt lat="37.713040" lon="-119.660300">
        <ele>1249.726</ele>
        <time>2018-12-27T16:57:55Z</time>
      </trkpt>
      <trkpt lat="37.712880" lon="-119.660540">
        <ele>1250.556</ele>
        <time>2018-12-27T16:58:15Z</time>
      </trkpt>
      <trkpt lat="37.712750" lon="-119.660780">
        <ele>1251.112</ele>
        <time>2018-12-27T16:58:35Z</time>
      </trkpt>
      <trkpt lat="37.712670" lon="-119.661010">
        <ele>1251.811</ele>
        <time>2018-12-27T16:58:55Z</time>
      </trkpt>
      <trkpt lat="37.712610" lon="-119.661220">
        <ele>1253.638</ele>
        <time>2018-12-27T16:59:15Z</time>
      </trkpt>
      <trkpt lat="37.712570" lon="-119.661370">
        <ele>1255.470</ele>
        <time>2018-12-27T16:59:35Z</time>
      </trkpt>
      <trkpt lat="37.712550" lon="-119.661510">
        <ele>1256.817</ele>
        <time>2018-12-27T16:59:55Z</time>
      </trkpt>
      <trkpt lat="37.712530" lon="-119.661710">
        <ele>1257.608</ele>
        <time>2018-12-27T17:00:15Z</time>
      </trkpt>
      <trkpt lat="37.712530" lon="-119.662060">
        <ele>1259.326</ele>
        <time>2018-12-27T17:00:35Z</time>
      </trkpt>
      <trkpt lat="37.712550" lon="-119.662720">
        <ele>1261.854</ele>
        <time>2018-12-27T17:00:55Z</time>
      </trkpt>
      <trkpt lat="37.712570" lon="-119.662950">
        <ele>1261.919</ele>
        <time>2018-12-27T17:01:15Z</time>
      </trkpt>
      <trkpt lat="37.712610" lon="-119.663210">
        <ele>1262.889</ele>
        <time>2018-12-27T17:01:35Z</time>
      </trkpt>
      <trkpt lat="37.712730" lon="-119.663860">
        <ele>1270.273</ele>
        <time>2018-12-27T17:01:55Z</time>
      </trkpt>
      <trkpt lat="37.712840" lon="-119.664390">
        <ele>1272.333</ele>
        <time>2018-12-27T17:02:15Z</time>
      </trkpt>
      <trkpt lat="37.712910" lon="-119.664800">
        <ele>1273.199</ele>
        <time>2018-12-27T17:02:35Z</time>
      </trkpt>
      <trkpt lat="37.712960" lon="-119.665130">
        <ele>1272.538</ele>
        <time>2018-12-27T17:02:55Z</time>
      </trkpt>
      <trkpt lat="37.712960" lon="-119.665360">
        <ele>1273.252</ele>
        <time>2018-12-27T17:03:15Z</time>
      </trkpt>
      <trkpt lat="37.712960" lon="-119.665900">
        <ele>1275.553</ele>
        <time>2018-12-27T17:03:35Z</time>
      </trkpt>
      <trkpt lat="37.712930" lon="-119.666530">
        <ele>1285.808</ele>
        <time>2018-12-27T17:03:55Z</time>
      </trkpt>
      <trkpt lat="37.712930" lon="-119.666830">
        <ele>1287.908</ele>
        <time>2018-12-27T17:04:15Z</time>
      </trkpt>
      <trkpt lat="37.712940" lon="-119.667190">
        <ele>1289.838</ele>
        <time>2018-12-27T17:04:35Z</time>
      </trkpt>
      <trkpt lat="37.712980" lon="-119.667520">
        <ele>1290.526</ele>
        <time>2018-12-27T17:04:55Z</time>
      </trkpt>
      <trkpt lat="37.713040" lon="-119.667820">
        <ele>1290.041</ele>
        <time>2018-12-27T17:05:15Z</time>
      </trkpt>
      <trkpt lat="37.713110" lon="-119.668110">
        <ele>1290.411</ele>
        <time>2018-12-27T17:05:35Z</time>
      </trkpt>
      <trkpt lat="37.713220" lon="-119.668400">
        <ele>1293.835</ele>
        <time>2018-12-27T17:05:55Z</time>
      </trkpt>
      <trkpt lat="37.713330" lon="-119.668690">
        <ele>1297.375</ele>
        <time>2018-12-27T17:06:15Z</time>
      </trkpt>
      <trkpt lat="37.713440" lon="-119.669030">
        <ele>1297.891</ele>
        <time>2018-12-27T17:06:35Z</time>
      </trkpt>
      <trkpt lat="37.713490" lon="-119.669310">
        <ele>1297.490</ele>
        <time>2018-12-27T17:06:55Z</time>
      </trkpt>
      <trkpt lat="37.713510" lon="-119.669550">
        <ele>1297.394</ele>
        <time>2018-12-27T17:07:15Z</time>
      </trkpt>
      <trkpt lat="37.713520" lon="-119.669760">
        <ele>1297.457</ele>
        <time>2018-12-27T17:07:35Z</time>
      </trkpt>
      <trkpt lat="37.713510" lon="-119.670040">
        <ele>1297.822</ele>
        <time>2018-12-27T17:07:55Z</time>
      </trkpt>
      <trkpt lat="37.713440" lon="-119.670450">
        <ele>1299.808</ele>
        <time>2018-12-27T17:08:15Z</time>
      </trkpt>
      <trkpt lat="37.713360" lon="-119.670820">
        <ele>1303.942</ele>
        <time>2018-12-27T17:08:35Z</time>
      </trkpt>
      <trkpt lat="37.713300" lon="-119.671100">
        <ele>1306.770</ele>
        <time>2018-12-27T17:08:55Z</time>
      </trkpt>
      <trkpt lat="37.713250" lon="-119.671410">
        <ele>1308.945</ele>
        <time>2018-12-27T17:09:15Z</time>
      </trkpt>
      <trkpt lat="37.713220" lon="-119.671740">
        <ele>1310.535</ele>
        <time>2018-12-27T17:09:35Z</time>
      </trkpt>
      <trkpt lat="37.713210" lon="-119.672210">
        <ele>1312.759</ele>
        <time>2018-12-27T17:09:55Z</time>
      </trkpt>
      <trkpt lat="37.713260" lon="-119.672610">
        <ele>1313.759</ele>
        <time>2018-12-27T17:10:15Z</time>
      </trkpt>
      <trkpt lat="37.713340" lon="-119.672910">
        <ele>1316.745</ele>
        <time>2018-12-27T17:10:35Z</time>
      </trkpt>
      <trkpt lat="37.713400" lon="-119.673070">
        <ele>1319.034</ele>
        <time>2018-12-27T17:10:55Z</time>
      </trkpt>
      <trkpt lat="37.713570" lon="-119.673330">
        <ele>1320.655</ele>
        <time>2018-12-27T17:11:15Z</time>
      </trkpt>
      <trkpt lat="37.713650" lon="-119.673430">
        <ele>1321.207</ele>
        <time>2018-12-27T17:11:35Z</time>
      </trkpt>
      <trkpt lat="37.713760" lon="-119.673580">
        <ele>1321.717</ele>
        <time>2018-12-27T17:11:55Z</time>
      </trkpt>
      <trkpt lat="37.713900" lon="-119.673770">
        <ele>1320.808</ele>
        <time>2018-12-27T17:12:15Z</time>
      </trkpt>
      <trkpt lat="37.713960" lon="-119.673870">
        <ele>1320.958</ele>
        <time>2018-12-27T17:12:35Z</time>
      </trkpt>
      <trkpt lat="37.714070" lon="-119.674080">
        <ele>1321.176</ele>
        <time>2018-12-27T17:12:55Z</time>
      </trkpt>
      <trkpt lat="37.714310" lon="-119.674690">
        <ele>1326.761</ele>
        <time>2018-12-27T17:13:15Z</time>
      </trkpt>
      <trkpt lat="37.714550" lon="-119.675360">
        <ele>1336.051</ele>
        <time>2018-12-27T17:13:35Z</time>
      </trkpt>
      <trkpt lat="37.714730" lon="-119.675820">
        <ele>1336.785</ele>
        <time>2018-12-27T17:13:55Z</time>
      </trkpt>
      <trkpt lat="37.714830" lon="-119.676070">
        <ele>1336.975</ele>
        <time>2018-12-27T17:14:15Z</time>
      </trkpt>
      <trkpt lat="37.714860" lon="-119.676110">
        <ele>1336.431</ele>
        <time>2018-12-27T17:14:35Z</time>
      </trkpt>
      <trkpt lat="37.714920" lon="-119.676230">
        <ele>1336.210</ele>
        <time>2018-12-27T17:14:55Z</time>
      </trkpt>
      <trkpt lat="37.715070" lon="-119.676410">
        <ele>1335.748</ele>
        <time>2018-12-27T17:15:15Z</time>
      </trkpt>
      <trkpt lat="37.715160" lon="-119.676500">
        <ele>1335.661</ele>
        <time>2018-12-27T17:15:35Z</time>
      </trkpt>
      <trkpt lat="37.715260" lon="-119.676600">
        <ele>1336.117</ele>
        <time>2018-12-27T17:15:55Z</time>
      </trkpt>
      <trkpt lat="37.715350" lon="-119.676740">
        <ele>1337.408</ele>
        <time>2018-12-27T17:16:15Z</time>
      </trkpt>
      <trkpt lat="37.715420" lon="-119.676900">
        <ele>1339.637</ele>
        <time>2018-12-27T17:16:35Z</time>
      </trkpt>
      <trkpt lat="37.715450" lon="-119.676980">
        <ele>1341.145</ele>
        <time>2018-12-27T17:16:55Z</time>
      </trkpt>
      <trkpt lat="37.715470" lon="-119.677050">
        <ele>1342.490</ele>
        <time>2018-12-27T17:17:15Z</time>
      </trkpt>
      <trkpt lat="37.715490" lon="-119.677130">
        <ele>1344.250</ele>
        <time>2018-12-27T17:17:35Z</time>
      </trkpt>
      <trkpt lat="37.715500" lon="-119.677210">
        <ele>1346.164</ele>
        <time>2018-12-27T17:17:55Z</time>
      </trkpt>
      <trkpt lat="37.715520" lon="-119.677360">
        <ele>1349.454</ele>
        <time>2018-12-27T17:18:15Z</time>
      </trkpt>
      <trkpt lat="37.715530" lon="-119.677480">
        <ele>1351.120</ele>
        <time>2018-12-27T17:18:35Z</time>
      </trkpt>
      <trkpt lat="37.715530" lon="-119.677560">
        <ele>1352.329</ele>
        <time>2018-12-27T17:18:55Z</time>
      </trkpt>
      <trkpt lat="37.715530" lon="-119.677720">
        <ele>1355.845</ele>
        <time>2018-12-27T17:19:15Z</time>
      </trkpt>
      <trkpt lat="37.715610" lon="-119.680420">
        <ele>1428.347</ele>
        <time>2018-12-27T17:19:35Z</time>
      </trkpt>
      <trkpt lat="37.715670" lon="-119.683190">
        <ele>1480.911</ele>
        <time>2018-12-27T17:19:55Z</time>
      </trkpt>
      <trkpt lat="37.715840" lon="-119.688370">
        <ele>1541.408</ele>
        <time>2018-12-27T17:20:15Z</time>
      </trkpt>
      <trkpt lat="37.716000" lon="-119.692440">
        <ele>1422.597</ele>
        <time>2018-12-27T17:20:35Z</time>
      </trkpt>
      <trkpt lat="37.716010" lon="-119.692660">
        <ele>1411.045</ele>
        <time>2018-12-27T17:20:55Z</time>
      </trkpt>
      <trkpt lat="37.716020" lon="-119.692850">
        <ele>1410.020</ele>
        <time>2018-12-27T17:21:15Z</time>
      </trkpt>
      <trkpt lat="37.716020" lon="-119.692970">
        <ele>1409.640</ele>
        <time>2018-12-27T17:21:35Z</time>
      </trkpt>
      <trkpt lat="37.716020" lon="-119.693070">
        <ele>1409.294</ele>
        <time>2018-12-27T17:21:55Z</time>
      </trkpt>
      <trkpt lat="37.716010" lon="-119.693170">
        <ele>1409.544</ele>
        <time>2018-12-27T17:22:15Z</time>
      </trkpt>
      <trkpt lat="37.716000" lon="-119.693280">
        <ele>1410.070</ele>
        <time>2018-12-27T17:22:35Z</time>
      </trkpt>
      <trkpt lat="37.715980" lon="-119.693400">
        <ele>1411.189</ele>
        <time>2018-12-27T17:22:55Z</time>
      </trkpt>
      <trkpt lat="37.715950" lon="-119.693510">
        <ele>1413.466</ele>
        <time>2018-12-27T17:23:15Z</time>
      </trkpt>
      <trkpt lat="37.715910" lon="-119.693610">
        <ele>1416.229</ele>
        <time>2018-12-27T17:23:35Z</time>
      </trkpt>
      <trkpt lat="37.715880" lon="-119.693690">
        <ele>1417.821</ele>
        <time>2018-12-27T17:23:55Z</time>
      </trkpt>
      <trkpt lat="37.715850" lon="-119.693770">
        <ele>1418.708</ele>
        <time>2018-12-27T17:24:15Z</time>
      </trkpt>
      <trkpt lat="37.715790" lon="-119.693870">
        <ele>1419.519</ele>
        <time>2018-12-27T17:24:35Z</time>
      </trkpt>
      <trkpt lat="37.715740" lon="-119.693970">
        <ele>1420.247</ele>
        <time>2018-12-27T17:24:55Z</time>
      </trkpt>
      <trkpt lat="37.715600" lon="-119.694210">
        <ele>1421.962</ele>
        <time>2018-12-27T17:25:15Z</time>
      </trkpt>
      <trkpt lat="37.715380" lon="-119.694460">
        <ele>1425.132</ele>
        <time>2018-12-27T17:25:35Z</time>
      </trkpt>
      <trkpt lat="37.715250" lon="-119.694760">
        <ele>1425.946</ele>
        <time>2018-12-27T17:25:55Z</time>
      </trkpt>
      <trkpt lat="37.714900" lon="-119.695640">
        <ele>1428.926</ele>
        <time>2018-12-27T17:26:15Z</time>
      </trkpt>
      <trkpt lat="37.714700" lon="-119.696090">
        <ele>1433.312</ele>
        <time>2018-12-27T17:26:35Z</time>
      </trkpt>
      <trkpt lat="37.714490" lon="-119.696460">
        <ele>1432.861</ele>
        <time>2018-12-27T17:26:55Z</time>
      </trkpt>
      <trkpt lat="37.714290" lon="-119.696750">
        <ele>1434.493</ele>
        <time>2018-12-27T17:27:15Z</time>
      </trkpt>
      <trkpt lat="37.714130" lon="-119.697050">
        <ele>1434.865</ele>
        <time>2018-12-27T17:27:35Z</time>
      </trkpt>
      <trkpt lat="37.713980" lon="-119.697440">
        <ele>1440.321</ele>
        <time>2018-12-27T17:27:55Z</time>
      </trkpt>
      <trkpt lat="37.713920" lon="-119.697760">
        <ele>1442.908</ele>
        <time>2018-12-27T17:28:15Z</time>
      </trkpt>
      <trkpt lat="37.713900" lon="-119.698140">
        <ele>1443.852</ele>
        <time>2018-12-27T17:28:35Z</time>
      </trkpt>
      <trkpt lat="37.713920" lon="-119.698530">
        <ele>1445.240</ele>
        <time>2018-12-27T17:28:55Z</time>
      </trkpt>
      <trkpt lat="37.713950" lon="-119.698880">
        <ele>1446.495</ele>
        <time>2018-12-27T17:29:15Z</time>
      </trkpt>
      <trkpt lat="37.714020" lon="-119.699300">
        <ele>1444.815</ele>
        <time>2018-12-27T17:29:35Z</time>
      </trkpt>
      <trkpt lat="37.714110" lon="-119.699640">
        <ele>1447.549</ele>
        <time>2018-12-27T17:29:55Z</time>
      </trkpt>
      <trkpt lat="37.714210" lon="-119.699940">
        <ele>1451.459</ele>
        <time>2018-12-27T17:30:15Z</time>
      </trkpt>
      <trkpt lat="37.714300" lon="-119.700150">
        <ele>1454.365</ele>
        <time>2018-12-27T17:30:35Z</time>
      </trkpt>
      <trkpt lat="37.714680" lon="-119.700990">
        <ele>1456.584</ele>
        <time>2018-12-27T17:30:55Z</time>
      </trkpt>
      <trkpt lat="37.715260" lon="-119.702770">
        <ele>1464.547</ele>
        <time>2018-12-27T17:31:15Z</time>
      </trkpt>
      <trkpt lat="37.715530" lon="-119.703600">
        <ele>1469.329</ele>
        <time>2018-12-27T17:31:35Z</time>
      </trkpt>
      <trkpt lat="37.715660" lon="-119.704000">
        <ele>1471.521</ele>
        <time>2018-12-27T17:31:55Z</time>
      </trkpt>
      <trkpt lat="37.715800" lon="-119.704290">
        <ele>1472.008</ele>
        <time>2018-12-27T17:32:15Z</time>
      </trkpt>
      <trkpt lat="37.715970" lon="-119.704510">
        <ele>1471.797</ele>
        <time>2018-12-27T17:32:35Z</time>
      </trkpt>
      <trkpt lat="37.716100" lon="-119.704640">
        <ele>1471.815</ele>
        <time>2018-12-27T17:32:55Z</time>
      </trkpt>
      <trkpt lat="37.716210" lon="-119.704780">
        <ele>1474.440</ele>
        <time>2018-12-27T17:33:15Z</time>
      </trkpt>
      <trkpt lat="37.716240" lon="-119.704810">
        <ele>1475.280</ele>
        <time>2018-12-27T17:33:35Z</time>
      </trkpt>
      <trkpt lat="37.716270" lon="-119.704860">
        <ele>1476.144</ele>
        <time>2018-12-27T17:33:55Z</time>
      </trkpt>
      <trkpt lat="37.716310" lon="-119.704930">
        <ele>1476.284</ele>
        <time>2018-12-27T17:34:15Z</time>
      </trkpt>
      <trkpt lat="37.716330" lon="-119.704990">
        <ele>1476.780</ele>
        <time>2018-12-27T17:34:35Z</time>
      </trkpt>
      <trkpt lat="37.716370" lon="-119.705080">
        <ele>1477.249</ele>
        <time>2018-12-27T17:34:55Z</time>
      </trkpt>
      <trkpt lat="37.716430" lon="-119.705220">
        <ele>1477.893</ele>
        <time>2018-12-27T17:35:15Z</time>
      </trkpt>
      <trkpt lat="37.716450" lon="-119.705280">
        <ele>1478.165</ele>
        <time>2018-12-27T17:35:35Z</time>
      </trkpt>
      <trkpt lat="37.716470" lon="-119.705370">
        <ele>1478.921</ele>
        <time>2018-12-27T17:35:55Z</time>
      </trkpt>
      <trkpt lat="37.716490" lon="-119.705420">
        <ele>1479.108</ele>
        <time>2018-12-27T17:36:15Z</time>
      </trkpt>
      <trkpt lat="37.716500" lon="-119.705480">
        <ele>1479.272</ele>
        <time>2018-12-27T17:36:35Z</time>
      </trkpt>
      <trkpt lat="37.716510" lon="-119.705550">
        <ele>1479.360</ele>
        <time>2018-12-27T17:36:55Z</time>
      </trkpt>
      <trkpt lat="37.716520" lon="-119.705600">
        <ele>1479.375</ele>
        <time>2018-12-27T17:37:15Z</time>
      </trkpt>
      <trkpt lat="37.716520" lon="-119.705660">
        <ele>1479.715</ele>
        <time>2018-12-27T17:37:35Z</time>
      </trkpt>
      <trkpt lat="37.716530" lon="-119.705740">
        <ele>1480.119</ele>
        <time>2018-12-27T17:37:55Z</time>
      </trkpt>
      <trkpt lat="37.716530" lon="-119.705850">
        <ele>1481.239</ele>
        <time>2018-12-27T17:38:15Z</time>
      </trkpt>
      <trkpt lat="37.716520" lon="-119.705990">
        <ele>1482.745</ele>
        <time>2018-12-27T17:38:35Z</time>
      </trkpt>
      <trkpt lat="37.716520" lon="-119.706080">
        <ele>1483.164</ele>
        <time>2018-12-27T17:38:55Z</time>
      </trkpt>
      <trkpt lat="37.716510" lon="-119.706130">
        <ele>1483.549</ele>
        <time>2018-12-27T17:39:15Z</time>
      </trkpt>
      <trkpt lat="37.716500" lon="-119.706180">
        <ele>1484.002</ele>
        <time>2018-12-27T17:39:35Z</time>
      </trkpt>
      <trkpt lat="37.716480" lon="-119.706250">
        <ele>1484.722</ele>
        <time>2018-12-27T17:39:55Z</time>
      </trkpt>
      <trkpt lat="37.716460" lon="-119.706330">
        <ele>1484.908</ele>
        <time>2018-12-27T17:40:15Z</time>
      </trkpt>
      <trkpt lat="37.716410" lon="-119.706520">
        <ele>1485.497</ele>
        <time>2018-12-27T17:40:35Z</time>
      </trkpt>
      <trkpt lat="37.716340" lon="-119.706670">
        <ele>1485.495</ele>
        <time>2018-12-27T17:40:55Z</time>
      </trkpt>
      <trkpt lat="37.716260" lon="-119.706820">
        <ele>1485.380</ele>
        <time>2018-12-27T17:41:15Z</time>
      </trkpt>
      <trkpt lat="37.716150" lon="-119.706970">
        <ele>1485.560</ele>
        <time>2018-12-27T17:41:35Z</time>
      </trkpt>
      <trkpt lat="37.715940" lon="-119.707240">
        <ele>1484.884</ele>
        <time>2018-12-27T17:41:55Z</time>
      </trkpt>
      <trkpt lat="37.715560" lon="-119.707740">
        <ele>1486.774</ele>
        <time>2018-12-27T17:42:15Z</time>
      </trkpt>
      <trkpt lat="37.715220" lon="-119.708190">
        <ele>1490.430</ele>
        <time>2018-12-27T17:42:35Z</time>
      </trkpt>
      <trkpt lat="37.715020" lon="-119.708400">
        <ele>1492.019</ele>
        <time>2018-12-27T17:42:55Z</time>
      </trkpt>
      <trkpt lat="37.714930" lon="-119.708500">
        <ele>1492.185</ele>
        <time>2018-12-27T17:43:15Z</time>
      </trkpt>
      <trkpt lat="37.714810" lon="-119.708600">
        <ele>1493.189</ele>
        <time>2018-12-27T17:43:35Z</time>
      </trkpt>
      <trkpt lat="37.714570" lon="-119.708710">
        <ele>1495.417</ele>
        <time>2018-12-27T17:43:55Z</time>
      </trkpt>
      <trkpt lat="37.714380" lon="-119.708750">
        <ele>1497.108</ele>
        <time>2018-12-27T17:44:15Z</time>
      </trkpt>
      <trkpt lat="37.714200" lon="-119.708800">
        <ele>1498.431</ele>
        <time>2018-12-27T17:44:35Z</time>
      </trkpt>
      <trkpt lat="37.714050" lon="-119.708860">
        <ele>1499.229</ele>
        <time>2018-12-27T17:44:55Z</time>
      </trkpt>
      <trkpt lat="37.713930" lon="-119.708960">
        <ele>1499.014</ele>
        <time>2018-12-27T17:45:15Z</time>
      </trkpt>
      <trkpt lat="37.713820" lon="-119.709080">
        <ele>1498.244</ele>
        <time>2018-12-27T17:45:35Z</time>
      </trkpt>
      <trkpt lat="37.713650" lon="-119.709320">
        <ele>1500.758</ele>
        <time>2018-12-27T17:45:55Z</time>
      </trkpt>
      <trkpt lat="37.713560" lon="-119.709440">
        <ele>1502.658</ele>
        <time>2018-12-27T17:46:15Z</time>
      </trkpt>
      <trkpt lat="37.713480" lon="-119.709540">
        <ele>1504.034</ele>
        <time>2018-12-27T17:46:35Z</time>
      </trkpt>
      <trkpt lat="37.713370" lon="-119.709650">
        <ele>1505.373</ele>
        <time>2018-12-27T17:46:55Z</time>
      </trkpt>
      <trkpt lat="37.713270" lon="-119.709730">
        <ele>1506.382</ele>
        <time>2018-12-27T17:47:15Z</time>
      </trkpt>
      <trkpt lat="37.713210" lon="-119.709760">
        <ele>1506.843</ele>
        <time>2018-12-27T17:47:35Z</time>
      </trkpt>
      <trkpt lat="37.713110" lon="-119.709800">
        <ele>1506.517</ele>
        <time>2018-12-27T17:47:55Z</time>
      </trkpt>
      <trkpt lat="37.713040" lon="-119.709820">
        <ele>1506.008</ele>
        <time>2018-12-27T17:48:15Z</time>
      </trkpt>
      <trkpt lat="37.712950" lon="-119.709840">
        <ele>1505.561</ele>
        <time>2018-12-27T17:48:35Z</time>
      </trkpt>
      <trkpt lat="37.712880" lon="-119.709840">
        <ele>1505.199</ele>
        <time>2018-12-27T17:48:55Z</time>
      </trkpt>
      <trkpt lat="37.712810" lon="-119.709830">
        <ele>1504.984</ele>
        <time>2018-12-27T17:49:15Z</time>
      </trkpt>
      <trkpt lat="37.712710" lon="-119.709800">
        <ele>1504.894</ele>
        <time>2018-12-27T17:49:35Z</time>
      </trkpt>
      <trkpt lat="37.712620" lon="-119.709760">
        <ele>1504.648</ele>
        <time>2018-12-27T17:49:55Z</time>
      </trkpt>
      <trkpt lat="37.712540" lon="-119.709710">
        <ele>1504.098</ele>
        <time>2018-12-27T17:50:15Z</time>
      </trkpt>
      <trkpt lat="37.712390" lon="-119.709590">
        <ele>1502.474</ele>
        <time>2018-12-27T17:50:35Z</time>
      </trkpt>
      <trkpt lat="37.712290" lon="-119.709500">
        <ele>1501.543</ele>
        <time>2018-12-27T17:50:55Z</time>
      </trkpt>
      <trkpt lat="37.712130" lon="-119.709330">
        <ele>1500.328</ele>
        <time>2018-12-27T17:51:15Z</time>
      </trkpt>
      <trkpt lat="37.712060" lon="-119.709260">
        <ele>1499.889</ele>
        <time>2018-12-27T17:51:35Z</time>
      </trkpt>
      <trkpt lat="37.711960" lon="-119.709170">
        <ele>1499.517</ele>
        <time>2018-12-27T17:51:55Z</time>
      </trkpt>
      <trkpt lat="37.711890" lon="-119.709110">
        <ele>1499.308</ele>
        <time>2018-12-27T17:52:15Z</time>
      </trkpt>
      <trkpt lat="37.711810" lon="-119.709050">
        <ele>1498.985</ele>
        <time>2018-12-27T17:52:35Z</time>
      </trkpt>
      <trkpt lat="37.711710" lon="-119.708990">
        <ele>1498.973</ele>
        <time>2018-12-27T17:52:55Z</time>
      </trkpt>
      <trkpt lat="37.711630" lon="-119.708950">
        <ele>1498.898</ele>
        <time>2018-12-27T17:53:15Z</time>
      </trkpt>
      <trkpt lat="37.711570" lon="-119.708910">
        <ele>1498.978</ele>
        <time>2018-12-27T17:53:35Z</time>
      </trkpt>
      <trkpt lat="37.711490" lon="-119.708890">
        <ele>1498.842</ele>
        <time>2018-12-27T17:53:55Z</time>
      </trkpt>
      <trkpt lat="37.711440" lon="-119.708870">
        <ele>1499.092</ele>
        <time>2018-12-27T17:54:15Z</time>
      </trkpt>
      <trkpt lat="37.711380" lon="-119.708850">
        <ele>1499.358</ele>
        <time>2018-12-27T17:54:35Z</time>
      </trkpt>
      <trkpt lat="37.711300" lon="-119.708830">
        <ele>1499.667</ele>
        <time>2018-12-27T17:54:55Z</time>
      </trkpt>
      <trkpt lat="37.711240" lon="-119.708820">
        <ele>1500.076</ele>
        <time>2018-12-27T17:55:15Z</time>
      </trkpt>
      <trkpt lat="37.710990" lon="-119.708780">
        <ele>1502.990</ele>
        <time>2018-12-27T17:55:35Z</time>
      </trkpt>
      <trkpt lat="37.710610" lon="-119.708760">
        <ele>1503.419</ele>
        <time>2018-12-27T17:55:55Z</time>
      </trkpt>
      <trkpt lat="37.710540" lon="-119.708740">
        <ele>1503.608</ele>
        <time>2018-12-27T17:56:15Z</time>
      </trkpt>
      <trkpt lat="37.710470" lon="-119.708730">
        <ele>1503.610</ele>
        <time>2018-12-27T17:56:35Z</time>
      </trkpt>
      <trkpt lat="37.710370" lon="-119.708700">
        <ele>1503.648</ele>
        <time>2018-12-27T17:56:55Z</time>
      </trkpt>
      <trkpt lat="37.710270" lon="-119.708660">
        <ele>1503.613</ele>
        <time>2018-12-27T17:57:15Z</time>
      </trkpt>
      <trkpt lat="37.710170" lon="-119.708620">
        <ele>1503.663</ele>
        <time>2018-12-27T17:57:35Z</time>
      </trkpt>
      <trkpt lat="37.710090" lon="-119.708580">
        <ele>1503.227</ele>
        <time>2018-12-27T17:57:55Z</time>
      </trkpt>
      <trkpt lat="37.709950" lon="-119.708480">
        <ele>1502.037</ele>
        <time>2018-12-27T17:58:15Z</time>
      </trkpt>
      <trkpt lat="37.709770" lon="-119.708360">
        <ele>1500.623</ele>
        <time>2018-12-27T17:58:35Z</time>
      </trkpt>
      <trkpt lat="37.709610" lon="-119.708270">
        <ele>1499.332</ele>
        <time>2018-12-27T17:58:55Z</time>
      </trkpt>
      <trkpt lat="37.709430" lon="-119.708230">
        <ele>1495.978</ele>
        <time>2018-12-27T17:59:15Z</time>
      </trkpt>
      <trkpt lat="37.709250" lon="-119.708240">
        <ele>1493.233</ele>
        <time>2018-12-27T17:59:35Z</time>
      </trkpt>
      <trkpt lat="37.709130" lon="-119.708280">
        <ele>1493.326</ele>
        <time>2018-12-27T17:59:55Z</time>
      </trkpt>
      <trkpt lat="37.709040" lon="-119.708340">
        <ele>1492.908</ele>
        <time>2018-12-27T18:00:15Z</time>
      </trkpt>
      <trkpt lat="37.708910" lon="-119.708450">
        <ele>1493.170</ele>
        <time>2018-12-27T18:00:35Z</time>
      </trkpt>
      <trkpt lat="37.708800" lon="-119.708590">
        <ele>1492.488</ele>
        <time>2018-12-27T18:00:55Z</time>
      </trkpt>
      <trkpt lat="37.708600" lon="-119.708920">
        <ele>1490.063</ele>
        <time>2018-12-27T18:01:15Z</time>
      </trkpt>
      <trkpt lat="37.708380" lon="-119.709210">
        <ele>1489.093</ele>
        <time>2018-12-27T18:01:35Z</time>
      </trkpt>
      <trkpt lat="37.707980" lon="-119.709600">
        <ele>1484.167</ele>
        <time>2018-12-27T18:01:55Z</time>
      </trkpt>
      <trkpt lat="37.707810" lon="-119.709770">
        <ele>1483.157</ele>
        <time>2018-12-27T18:02:15Z</time>
      </trkpt>
      <trkpt lat="37.707570" lon="-119.709990">
        <ele>1482.373</ele>
        <time>2018-12-27T18:02:35Z</time>
      </trkpt>
      <trkpt lat="37.707460" lon="-119.710070">
        <ele>1482.542</ele>
        <time>2018-12-27T18:02:55Z</time>
      </trkpt>
      <trkpt lat="37.707350" lon="-119.710160">
        <ele>1481.969</ele>
        <time>2018-12-27T18:03:15Z</time>
      </trkpt>
      <trkpt lat="37.707100" lon="-119.710350">
        <ele>1480.204</ele>
        <time>2018-12-27T18:03:35Z</time>
      </trkpt>
      <trkpt lat="37.706820" lon="-119.710600">
        <ele>1477.824</ele>
        <time>2018-12-27T18:03:55Z</time>
      </trkpt>
      <trkpt lat="37.706640" lon="-119.710780">
        <ele>1477.808</ele>
        <time>2018-12-27T18:04:15Z</time>
      </trkpt>
      <trkpt lat="37.706540" lon="-119.710870">
        <ele>1478.859</ele>
        <time>2018-12-27T18:04:35Z</time>
      </trkpt>
      <trkpt lat="37.706390" lon="-119.710970">
        <ele>1479.077</ele>
        <time>2018-12-27T18:04:55Z</time>
      </trkpt>
      <trkpt lat="37.706200" lon="-119.711060">
        <ele>1478.132</ele>
        <time>2018-12-27T18:05:15Z</time>
      </trkpt>
      <trkpt lat="37.706010" lon="-119.711150">
        <ele>1476.952</ele>
        <time>2018-12-27T18:05:35Z</time>
      </trkpt>
      <trkpt lat="37.705880" lon="-119.711220">
        <ele>1477.986</ele>
        <time>2018-12-27T18:05:55Z</time>
      </trkpt>
      <trkpt lat="37.705780" lon="-119.711310">
        <ele>1477.956</ele>
        <time>2018-12-27T18:06:15Z</time>
      </trkpt>
      <trkpt lat="37.705590" lon="-119.711510">
        <ele>1479.682</ele>
        <time>2018-12-27T18:06:35Z</time>
      </trkpt>
      <trkpt lat="37.705480" lon="-119.711640">
        <ele>1482.611</ele>
        <time>2018-12-27T18:06:55Z</time>
      </trkpt>
      <trkpt lat="37.705340" lon="-119.711780">
        <ele>1489.829</ele>
        <time>2018-12-27T18:07:15Z</time>
      </trkpt>
      <trkpt lat="37.705230" lon="-119.711890">
        <ele>1490.600</ele>
        <time>2018-12-27T18:07:35Z</time>
      </trkpt>
      <trkpt lat="37.705160" lon="-119.711960">
        <ele>1491.920</ele>
        <time>2018-12-27T18:07:55Z</time>
      </trkpt>
      <trkpt lat="37.705050" lon="-119.712010">
        <ele>1492.708</ele>
        <time>2018-12-27T18:08:15Z</time>
      </trkpt>
      <trkpt lat="37.704920" lon="-119.712060">
        <ele>1492.565</ele>
        <time>2018-12-27T18:08:35Z</time>
      </trkpt>
      <trkpt lat="37.704770" lon="-119.712110">
        <ele>1492.063</ele>
        <time>2018-12-27T18:08:55Z</time>
      </trkpt>
      <trkpt lat="37.704350" lon="-119.712190">
        <ele>1493.248</ele>
        <time>2018-12-27T18:09:15Z</time>
      </trkpt>
      <trkpt lat="37.704010" lon="-119.712240">
        <ele>1495.138</ele>
        <time>2018-12-27T18:09:35Z</time>
      </trkpt>
      <trkpt lat="37.703620" lon="-119.712270">
        <ele>1500.862</ele>
        <time>2018-12-27T18:09:55Z</time>
      </trkpt>
      <trkpt lat="37.703470" lon="-119.712270">
        <ele>1504.432</ele>
        <time>2018-12-27T18:10:15Z</time>
      </trkpt>
      <trkpt lat="37.703280" lon="-119.712270">
        <ele>1505.518</ele>
        <time>2018-12-27T18:10:35Z</time>
      </trkpt>
      <trkpt lat="37.703130" lon="-119.712290">
        <ele>1506.147</ele>
        <time>2018-12-27T18:10:55Z</time>
      </trkpt>
      <trkpt lat="37.702900" lon="-119.712350">
        <ele>1506.545</ele>
        <time>2018-12-27T18:11:15Z</time>
      </trkpt>
      <trkpt lat="37.702690" lon="-119.712410">
        <ele>1506.947</ele>
        <time>2018-12-27T18:11:35Z</time>
      </trkpt>
      <trkpt lat="37.702430" lon="-119.712480">
        <ele>1506.711</ele>
        <time>2018-12-27T18:11:55Z</time>
      </trkpt>
      <trkpt lat="37.702310" lon="-119.712510">
        <ele>1506.108</ele>
        <time>2018-12-27T18:12:15Z</time>
      </trkpt>
      <trkpt lat="37.702190" lon="-119.712540">
        <ele>1505.147</ele>
        <time>2018-12-27T18:12:35Z</time>
      </trkpt>
      <trkpt lat="37.702030" lon="-119.712550">
        <ele>1506.665</ele>
        <time>2018-12-27T18:12:55Z</time>
      </trkpt>
      <trkpt lat="37.701940" lon="-119.712560">
        <ele>1509.330</ele>
        <time>2018-12-27T18:13:15Z</time>
      </trkpt>
      <trkpt lat="37.701830" lon="-119.712550">
        <ele>1513.290</ele>
        <time>2018-12-27T18:13:35Z</time>
      </trkpt>
      <trkpt lat="37.701700" lon="-119.712500">
        <ele>1513.654</ele>
        <time>2018-12-27T18:13:55Z</time>
      </trkpt>
      <trkpt lat="37.701580" lon="-119.712430">
        <ele>1514.784</ele>
        <time>2018-12-27T18:14:15Z</time>
      </trkpt>
      <trkpt lat="37.701490" lon="-119.712350">
        <ele>1516.880</ele>
        <time>2018-12-27T18:14:35Z</time>
      </trkpt>
      <trkpt lat="37.701400" lon="-119.712260">
        <ele>1517.349</ele>
        <time>2018-12-27T18:14:55Z</time>
      </trkpt>
      <trkpt lat="37.701270" lon="-119.712050">
        <ele>1520.153</ele>
        <time>2018-12-27T18:15:15Z</time>
      </trkpt>
      <trkpt lat="37.701150" lon="-119.711860">
        <ele>1521.404</ele>
        <time>2018-12-27T18:15:35Z</time>
      </trkpt>
      <trkpt lat="37.701030" lon="-119.711680">
        <ele>1523.514</ele>
        <time>2018-12-27T18:15:55Z</time>
      </trkpt>
      <trkpt lat="37.700910" lon="-119.711510">
        <ele>1524.708</ele>
        <time>2018-12-27T18:16:15Z</time>
      </trkpt>
      <trkpt lat="37.700780" lon="-119.711370">
        <ele>1525.568</ele>
        <time>2018-12-27T18:16:35Z</time>
      </trkpt>
      <trkpt lat="37.700670" lon="-119.711300">
        <ele>1523.776</ele>
        <time>2018-12-27T18:16:55Z</time>
      </trkpt>
      <trkpt lat="37.700590" lon="-119.711250">
        <ele>1524.171</ele>
        <time>2018-12-27T18:17:15Z</time>
      </trkpt>
      <trkpt lat="37.700330" lon="-119.711150">
        <ele>1525.361</ele>
        <time>2018-12-27T18:17:35Z</time>
      </trkpt>
      <trkpt lat="37.700130" lon="-119.711070">
        <ele>1527.155</ele>
        <time>2018-12-27T18:17:55Z</time>
      </trkpt>
      <trkpt lat="37.699950" lon="-119.711020">
        <ele>1528.415</ele>
        <time>2018-12-27T18:18:15Z</time>
      </trkpt>
      <trkpt lat="37.699760" lon="-119.710940">
        <ele>1530.441</ele>
        <time>2018-12-27T18:18:35Z</time>
      </trkpt>
      <trkpt lat="37.699610" lon="-119.710850">
        <ele>1531.110</ele>
        <time>2018-12-27T18:18:55Z</time>
      </trkpt>
      <trkpt lat="37.699500" lon="-119.710760">
        <ele>1530.925</ele>
        <time>2018-12-27T18:19:15Z</time>
      </trkpt>
      <trkpt lat="37.699400" lon="-119.710640">
        <ele>1532.326</ele>
        <time>2018-12-27T18:19:35Z</time>
      </trkpt>
      <trkpt lat="37.699310" lon="-119.710490">
        <ele>1533.508</ele>
        <time>2018-12-27T18:19:55Z</time>
      </trkpt>
      <trkpt lat="37.699210" lon="-119.710300">
        <ele>1535.208</ele>
        <time>2018-12-27T18:20:15Z</time>
      </trkpt>
      <trkpt lat="37.699070" lon="-119.710020">
        <ele>1536.735</ele>
        <time>2018-12-27T18:20:35Z</time>
      </trkpt>
      <trkpt lat="37.698880" lon="-119.709630">
        <ele>1542.113</ele>
        <time>2018-12-27T18:20:55Z</time>
      </trkpt>
      <trkpt lat="37.698750" lon="-119.709280">
        <ele>1543.638</ele>
        <time>2018-12-27T18:21:15Z</time>
      </trkpt>
      <trkpt lat="37.698670" lon="-119.708990">
        <ele>1545.058</ele>
        <time>2018-12-27T18:21:35Z</time>
      </trkpt>
      <trkpt lat="37.698610" lon="-119.708730">
        <ele>1547.862</ele>
        <time>2018-12-27T18:21:55Z</time>
      </trkpt>
      <trkpt lat="37.698540" lon="-119.708510">
        <ele>1548.612</ele>
        <time>2018-12-27T18:22:15Z</time>
      </trkpt>
      <trkpt lat="37.698490" lon="-119.708380">
        <ele>1548.138</ele>
        <time>2018-12-27T18:22:35Z</time>
      </trkpt>
      <trkpt lat="37.698430" lon="-119.708280">
        <ele>1547.667</ele>
        <time>2018-12-27T18:22:55Z</time>
      </trkpt>
      <trkpt lat="37.698380" lon="-119.708210">
        <ele>1547.917</ele>
        <time>2018-12-27T18:23:15Z</time>
      </trkpt>
      <trkpt lat="37.698320" lon="-119.708160">
        <ele>1548.687</ele>
        <time>2018-12-27T18:23:35Z</time>
      </trkpt>
      <trkpt lat="37.698230" lon="-119.708090">
        <ele>1550.015</ele>
        <time>2018-12-27T18:23:55Z</time>
      </trkpt>
      <trkpt lat="37.698110" lon="-119.708060">
        <ele>1549.808</ele>
        <time>2018-12-27T18:24:15Z</time>
      </trkpt>
      <trkpt lat="37.697980" lon="-119.708040">
        <ele>1549.424</ele>
        <time>2018-12-27T18:24:35Z</time>
      </trkpt>
      <trkpt lat="37.697840" lon="-119.708050">
        <ele>1548.562</ele>
        <time>2018-12-27T18:24:55Z</time>
      </trkpt>
      <trkpt lat="37.697630" lon="-119.708100">
        <ele>1547.197</ele>
        <time>2018-12-27T18:25:15Z</time>
      </trkpt>
      <trkpt lat="37.697480" lon="-119.708150">
        <ele>1546.847</ele>
        <time>2018-12-27T18:25:35Z</time>
      </trkpt>
      <trkpt lat="37.697330" lon="-119.708210">
        <ele>1546.161</ele>
        <time>2018-12-27T18:25:55Z</time>
      </trkpt>
      <trkpt lat="37.697200" lon="-119.708250">
        <ele>1545.541</ele>
        <time>2018-12-27T18:26:15Z</time>
      </trkpt>
      <trkpt lat="37.697070" lon="-119.708280">
        <ele>1545.117</ele>
        <time>2018-12-27T18:26:35Z</time>
      </trkpt>
      <trkpt lat="37.696920" lon="-119.708290">
        <ele>1545.066</ele>
        <time>2018-12-27T18:26:55Z</time>
      </trkpt>
      <trkpt lat="37.696790" lon="-119.708270">
        <ele>1545.691</ele>
        <time>2018-12-27T18:27:15Z</time>
      </trkpt>
      <trkpt lat="37.696660" lon="-119.708240">
        <ele>1545.781</ele>
        <time>2018-12-27T18:27:35Z</time>
      </trkpt>
      <trkpt lat="37.696550" lon="-119.708180">
        <ele>1546.719</ele>
        <time>2018-12-27T18:27:55Z</time>
      </trkpt>
      <trkpt lat="37.696440" lon="-119.708110">
        <ele>1547.608</ele>
        <time>2018-12-27T18:28:15Z</time>
      </trkpt>
      <trkpt lat="37.696340" lon="-119.708030">
        <ele>1548.852</ele>
        <time>2018-12-27T18:28:35Z</time>
      </trkpt>
      <trkpt lat="37.696170" lon="-119.707880">
        <ele>1551.340</ele>
        <time>2018-12-27T18:28:55Z</time>
      </trkpt>
      <trkpt lat="37.696000" lon="-119.707760">
        <ele>1553.265</ele>
        <time>2018-12-27T18:29:15Z</time>
      </trkpt>
      <trkpt lat="37.695880" lon="-119.707700">
        <ele>1553.125</ele>
        <time>2018-12-27T18:29:35Z</time>
      </trkpt>
      <trkpt lat="37.695780" lon="-119.707670">
        <ele>1551.979</ele>
        <time>2018-12-27T18:29:55Z</time>
      </trkpt>
      <trkpt lat="37.695630" lon="-119.707650">
        <ele>1550.459</ele>
        <time>2018-12-27T18:30:15Z</time>
      </trkpt>
      <trkpt lat="37.695440" lon="-119.707650">
        <ele>1550.045</ele>
        <time>2018-12-27T18:30:35Z</time>
      </trkpt>
      <trkpt lat="37.695290" lon="-119.707670">
        <ele>1549.634</ele>
        <time>2018-12-27T18:30:55Z</time>
      </trkpt>
      <trkpt lat="37.695140" lon="-119.707710">
        <ele>1548.722</ele>
        <time>2018-12-27T18:31:15Z</time>
      </trkpt>
      <trkpt lat="37.694840" lon="-119.707820">
        <ele>1547.362</ele>
        <time>2018-12-27T18:31:35Z</time>
      </trkpt>
      <trkpt lat="37.694650" lon="-119.707880">
        <ele>1546.208</ele>
        <time>2018-12-27T18:31:55Z</time>
      </trkpt>
      <trkpt lat="37.694580" lon="-119.707890">
        <ele>1546.208</ele>
        <time>2018-12-27T18:32:15Z</time>
      </trkpt>
      <trkpt lat="37.694500" lon="-119.707910">
        <ele>1545.615</ele>
        <time>2018-12-27T18:32:35Z</time>
      </trkpt>
      <trkpt lat="37.694360" lon="-119.707930">
        <ele>1545.353</ele>
        <time>2018-12-27T18:32:55Z</time>
      </trkpt>
      <trkpt lat="37.694260" lon="-119.707930">
        <ele>1545.358</ele>
        <time>2018-12-27T18:33:15Z</time>
      </trkpt>
      <trkpt lat="37.694150" lon="-119.707920">
        <ele>1545.288</ele>
        <time>2018-12-27T18:33:35Z</time>
      </trkpt>
      <trkpt lat="37.694080" lon="-119.707910">
        <ele>1545.232</ele>
        <time>2018-12-27T18:33:55Z</time>
      </trkpt>
      <trkpt lat="37.694000" lon="-119.707900">
        <ele>1545.112</ele>
        <time>2018-12-27T18:34:15Z</time>
      </trkpt>
      <trkpt lat="37.693900" lon="-119.707870">
        <ele>1545.178</ele>
        <time>2018-12-27T18:34:35Z</time>
      </trkpt>
      <trkpt lat="37.693810" lon="-119.707840">
        <ele>1545.127</ele>
        <time>2018-12-27T18:34:55Z</time>
      </trkpt>
      <trkpt lat="37.693700" lon="-119.707780">
        <ele>1545.355</ele>
        <time>2018-12-27T18:35:15Z</time>
      </trkpt>
      <trkpt lat="37.693610" lon="-119.707730">
        <ele>1545.107</ele>
        <time>2018-12-27T18:35:35Z</time>
      </trkpt>
      <trkpt lat="37.693520" lon="-119.707660">
        <ele>1545.217</ele>
        <time>2018-12-27T18:35:55Z</time>
      </trkpt>
      <trkpt lat="37.693430" lon="-119.707580">
        <ele>1545.208</ele>
        <time>2018-12-27T18:36:15Z</time>
      </trkpt>
      <trkpt lat="37.693320" lon="-119.707460">
        <ele>1545.218</ele>
        <time>2018-12-27T18:36:35Z</time>
      </trkpt>
      <trkpt lat="37.693230" lon="-119.707350">
        <ele>1545.386</ele>
        <time>2018-12-27T18:36:55Z</time>
      </trkpt>
      <trkpt lat="37.693160" lon="-119.707250">
        <ele>1545.431</ele>
        <time>2018-12-27T18:37:15Z</time>
      </trkpt>
      <trkpt lat="37.693070" lon="-119.707120">
        <ele>1545.591</ele>
        <time>2018-12-27T18:37:35Z</time>
      </trkpt>
      <trkpt lat="37.692990" lon="-119.706980">
        <ele>1546.155</ele>
        <time>2018-12-27T18:37:55Z</time>
      </trkpt>
      <trkpt lat="37.692890" lon="-119.706830">
        <ele>1546.225</ele>
        <time>2018-12-27T18:38:15Z</time>
      </trkpt>
      <trkpt lat="37.692780" lon="-119.706650">
        <ele>1546.491</ele>
        <time>2018-12-27T18:38:35Z</time>
      </trkpt>
      <trkpt lat="37.692670" lon="-119.706480">
        <ele>1546.460</ele>
        <time>2018-12-27T18:38:55Z</time>
      </trkpt>
      <trkpt lat="37.692580" lon="-119.706330">
        <ele>1546.344</ele>
        <time>2018-12-27T18:39:15Z</time>
      </trkpt>
      <trkpt lat="37.692480" lon="-119.706170">
        <ele>1546.305</ele>
        <time>2018-12-27T18:39:35Z</time>
      </trkpt>
      <trkpt lat="37.692350" lon="-119.705950">
        <ele>1546.015</ele>
        <time>2018-12-27T18:39:55Z</time>
      </trkpt>
      <trkpt lat="37.692220" lon="-119.705710">
        <ele>1546.008</ele>
        <time>2018-12-27T18:40:15Z</time>
      </trkpt>
      <trkpt lat="37.692140" lon="-119.705550">
        <ele>1546.277</ele>
        <time>2018-12-27T18:40:35Z</time>
      </trkpt>
      <trkpt lat="37.692050" lon="-119.705340">
        <ele>1546.265</ele>
        <time>2018-12-27T18:40:55Z</time>
      </trkpt>
      <trkpt lat="37.691990" lon="-119.705160">
        <ele>1546.670</ele>
        <time>2018-12-27T18:41:15Z</time>
      </trkpt>
      <trkpt lat="37.691910" lon="-119.704930">
        <ele>1547.120</ele>
        <time>2018-12-27T18:41:35Z</time>
      </trkpt>
      <trkpt lat="37.691750" lon="-119.704510">
        <ele>1548.344</ele>
        <time>2018-12-27T18:41:55Z</time>
      </trkpt>
      <trkpt lat="37.691620" lon="-119.704150">
        <ele>1552.194</ele>
        <time>2018-12-27T18:42:15Z</time>
      </trkpt>
      <trkpt lat="37.691480" lon="-119.703780">
        <ele>1555.360</ele>
        <time>2018-12-27T18:42:35Z</time>
      </trkpt>
      <trkpt lat="37.691340" lon="-119.703400">
        <ele>1556.359</ele>
        <time>2018-12-27T18:42:55Z</time>
      </trkpt>
      <trkpt lat="37.691230" lon="-119.703100">
        <ele>1556.513</ele>
        <time>2018-12-27T18:43:15Z</time>
      </trkpt>
      <trkpt lat="37.691060" lon="-119.702640">
        <ele>1556.743</ele>
        <time>2018-12-27T18:43:35Z</time>
      </trkpt>
      <trkpt lat="37.691040" lon="-119.702560">
        <ele>1556.907</ele>
        <time>2018-12-27T18:43:55Z</time>
      </trkpt>
      <trkpt lat="37.690950" lon="-119.702320">
        <ele>1556.908</ele>
        <time>2018-12-27T18:44:15Z</time>
      </trkpt>
      <trkpt lat="37.690810" lon="-119.701940">
        <ele>1557.324</ele>
        <time>2018-12-27T18:44:35Z</time>
      </trkpt>
      <trkpt lat="37.690650" lon="-119.701520">
        <ele>1557.842</ele>
        <time>2018-12-27T18:44:55Z</time>
      </trkpt>
      <trkpt lat="37.690550" lon="-119.701250">
        <ele>1558.287</ele>
        <time>2018-12-27T18:45:15Z</time>
      </trkpt>
      <trkpt lat="37.690400" lon="-119.700840">
        <ele>1558.847</ele>
        <time>2018-12-27T18:45:35Z</time>
      </trkpt>
      <trkpt lat="37.690280" lon="-119.700520">
        <ele>1560.181</ele>
        <time>2018-12-27T18:45:55Z</time>
      </trkpt>
      <trkpt lat="37.690210" lon="-119.700320">
        <ele>1560.941</ele>
        <time>2018-12-27T18:46:15Z</time>
      </trkpt>
      <trkpt lat="37.690080" lon="-119.700030">
        <ele>1561.497</ele>
        <time>2018-12-27T18:46:35Z</time>
      </trkpt>
      <trkpt lat="37.689990" lon="-119.699880">
        <ele>1562.286</ele>
        <time>2018-12-27T18:46:55Z</time>
      </trkpt>
      <trkpt lat="37.689930" lon="-119.699810">
        <ele>1562.599</ele>
        <time>2018-12-27T18:47:15Z</time>
      </trkpt>
      <trkpt lat="37.689860" lon="-119.699750">
        <ele>1562.107</ele>
        <time>2018-12-27T18:47:35Z</time>
      </trkpt>
      <trkpt lat="37.689780" lon="-119.699690">
        <ele>1562.427</ele>
        <time>2018-12-27T18:47:55Z</time>
      </trkpt>
      <trkpt lat="37.689710" lon="-119.699660">
        <ele>1562.008</ele>
        <time>2018-12-27T18:48:15Z</time>
      </trkpt>
      <trkpt lat="37.689620" lon="-119.699630">
        <ele>1561.192</ele>
        <time>2018-12-27T18:48:35Z</time>
      </trkpt>
      <trkpt lat="37.689520" lon="-119.699610">
        <ele>1560.940</ele>
        <time>2018-12-27T18:48:55Z</time>
      </trkpt>
      <trkpt lat="37.689460" lon="-119.699610">
        <ele>1561.065</ele>
        <time>2018-12-27T18:49:15Z</time>
      </trkpt>
      <trkpt lat="37.689420" lon="-119.699600">
        <ele>1561.115</ele>
        <time>2018-12-27T18:49:35Z</time>
      </trkpt>
      <trkpt lat="37.689370" lon="-119.699610">
        <ele>1561.119</ele>
        <time>2018-12-27T18:49:55Z</time>
      </trkpt>
      <trkpt lat="37.689300" lon="-119.699620">
        <ele>1561.259</ele>
        <time>2018-12-27T18:50:15Z</time>
      </trkpt>
      <trkpt lat="37.689220" lon="-119.699630">
        <ele>1562.055</ele>
        <time>2018-12-27T18:50:35Z</time>
      </trkpt>
      <trkpt lat="37.689070" lon="-119.699700">
        <ele>1563.584</ele>
        <time>2018-12-27T18:50:55Z</time>
      </trkpt>
      <trkpt lat="37.689010" lon="-119.699730">
        <ele>1564.356</ele>
        <time>2018-12-27T18:51:15Z</time>
      </trkpt>
      <trkpt lat="37.688950" lon="-119.699780">
        <ele>1564.959</ele>
        <time>2018-12-27T18:51:35Z</time>
      </trkpt>
      <trkpt lat="37.688880" lon="-119.699850">
        <ele>1565.514</ele>
        <time>2018-12-27T18:51:55Z</time>
      </trkpt>
      <trkpt lat="37.688770" lon="-119.699980">
        <ele>1566.008</ele>
        <time>2018-12-27T18:52:15Z</time>
      </trkpt>
      <trkpt lat="37.688440" lon="-119.700430">
        <ele>1568.288</ele>
        <time>2018-12-27T18:52:35Z</time>
      </trkpt>
      <trkpt lat="37.688170" lon="-119.700780">
        <ele>1570.646</ele>
        <time>2018-12-27T18:52:55Z</time>
      </trkpt>
      <trkpt lat="37.688080" lon="-119.700910">
        <ele>1571.451</ele>
        <time>2018-12-27T18:53:15Z</time>
      </trkpt>
      <trkpt lat="37.687950" lon="-119.701070">
        <ele>1573.391</ele>
        <time>2018-12-27T18:53:35Z</time>
      </trkpt>
      <trkpt lat="37.687830" lon="-119.701180">
        <ele>1575.015</ele>
        <time>2018-12-27T18:53:55Z</time>
      </trkpt>
      <trkpt lat="37.687740" lon="-119.701260">
        <ele>1575.815</ele>
        <time>2018-12-27T18:54:15Z</time>
      </trkpt>
      <trkpt lat="37.687610" lon="-119.701340">
        <ele>1576.771</ele>
        <time>2018-12-27T18:54:35Z</time>
      </trkpt>
      <trkpt lat="37.687510" lon="-119.701390">
        <ele>1577.320</ele>
        <time>2018-12-27T18:54:55Z</time>
      </trkpt>
      <trkpt lat="37.687450" lon="-119.701440">
        <ele>1577.364</ele>
        <time>2018-12-27T18:55:15Z</time>
      </trkpt>
      <trkpt lat="37.687370" lon="-119.701520">
        <ele>1577.206</ele>
        <time>2018-12-27T18:55:35Z</time>
      </trkpt>
      <trkpt lat="37.687310" lon="-119.701600">
        <ele>1577.116</ele>
        <time>2018-12-27T18:55:55Z</time>
      </trkpt>
      <trkpt lat="37.687240" lon="-119.701700">
        <ele>1577.608</ele>
        <time>2018-12-27T18:56:15Z</time>
      </trkpt>
      <trkpt lat="37.687220" lon="-119.701760">
        <ele>1577.739</ele>
        <time>2018-12-27T18:56:35Z</time>
      </trkpt>
      <trkpt lat="37.687190" lon="-119.701820">
        <ele>1578.347</ele>
        <time>2018-12-27T18:56:55Z</time>
      </trkpt>
      <trkpt lat="37.687170" lon="-119.701910">
        <ele>1579.192</ele>
        <time>2018-12-27T18:57:15Z</time>
      </trkpt>
      <trkpt lat="37.687150" lon="-119.702000">
        <ele>1579.992</ele>
        <time>2018-12-27T18:57:35Z</time>
      </trkpt>
      <trkpt lat="37.687150" lon="-119.702090">
        <ele>1580.276</ele>
        <time>2018-12-27T18:57:55Z</time>
      </trkpt>
      <trkpt lat="37.687160" lon="-119.702300">
        <ele>1580.476</ele>
        <time>2018-12-27T18:58:15Z</time>
      </trkpt>
      <trkpt lat="37.687170" lon="-119.702420">
        <ele>1580.662</ele>
        <time>2018-12-27T18:58:35Z</time>
      </trkpt>
      <trkpt lat="37.687170" lon="-119.702590">
        <ele>1581.541</ele>
        <time>2018-12-27T18:58:55Z</time>
      </trkpt>
      <trkpt lat="37.687160" lon="-119.702730">
        <ele>1583.253</ele>
        <time>2018-12-27T18:59:15Z</time>
      </trkpt>
      <trkpt lat="37.687150" lon="-119.702820">
        <ele>1584.704</ele>
        <time>2018-12-27T18:59:35Z</time>
      </trkpt>
      <trkpt lat="37.687130" lon="-119.702930">
        <ele>1586.814</ele>
        <time>2018-12-27T18:59:55Z</time>
      </trkpt>
      <trkpt lat="37.687080" lon="-119.703140">
        <ele>1588.808</ele>
        <time>2018-12-27T19:00:15Z</time>
      </trkpt>
      <trkpt lat="37.687030" lon="-119.703280">
        <ele>1589.978</ele>
        <time>2018-12-27T19:00:35Z</time>
      </trkpt>
      <trkpt lat="37.686910" lon="-119.703610">
        <ele>1592.456</ele>
        <time>2018-12-27T19:00:55Z</time>
      </trkpt>
      <trkpt lat="37.686880" lon="-119.703730">
        <ele>1593.071</ele>
        <time>2018-12-27T19:01:15Z</time>
      </trkpt>
      <trkpt lat="37.686850" lon="-119.703840">
        <ele>1593.661</ele>
        <time>2018-12-27T19:01:35Z</time>
      </trkpt>
      <trkpt lat="37.686800" lon="-119.704110">
        <ele>1594.675</ele>
        <time>2018-12-27T19:01:55Z</time>
      </trkpt>
      <trkpt lat="37.686720" lon="-119.704650">
        <ele>1596.345</ele>
        <time>2018-12-27T19:02:15Z</time>
      </trkpt>
      <trkpt lat="37.686660" lon="-119.705170">
        <ele>1596.671</ele>
        <time>2018-12-27T19:02:35Z</time>
      </trkpt>
      <trkpt lat="37.686630" lon="-119.705340">
        <ele>1597.230</ele>
        <time>2018-12-27T19:02:55Z</time>
      </trkpt>
      <trkpt lat="37.686610" lon="-119.705450">
        <ele>1597.862</ele>
        <time>2018-12-27T19:03:15Z</time>
      </trkpt>
      <trkpt lat="37.686590" lon="-119.705550">
        <ele>1598.883</ele>
        <time>2018-12-27T19:03:35Z</time>
      </trkpt>
      <trkpt lat="37.686550" lon="-119.705740">
        <ele>1600.711</ele>
        <time>2018-12-27T19:03:55Z</time>
      </trkpt>
      <trkpt lat="37.686510" lon="-119.705860">
        <ele>1601.308</ele>
        <time>2018-12-27T19:04:15Z</time>
      </trkpt>
      <trkpt lat="37.686470" lon="-119.706010">
        <ele>1601.549</ele>
        <time>2018-12-27T19:04:35Z</time>
      </trkpt>
      <trkpt lat="37.686400" lon="-119.706240">
        <ele>1601.897</ele>
        <time>2018-12-27T19:04:55Z</time>
      </trkpt>
      <trkpt lat="37.686250" lon="-119.706660">
        <ele>1603.182</ele>
        <time>2018-12-27T19:05:15Z</time>
      </trkpt>
      <trkpt lat="37.686090" lon="-119.706990">
        <ele>1604.692</ele>
        <time>2018-12-27T19:05:35Z</time>
      </trkpt>
      <trkpt lat="37.685910" lon="-119.707300">
        <ele>1606.436</ele>
        <time>2018-12-27T19:05:55Z</time>
      </trkpt>
      <trkpt lat="37.685820" lon="-119.707440">
        <ele>1607.436</ele>
        <time>2018-12-27T19:06:15Z</time>
      </trkpt>
      <trkpt lat="37.685600" lon="-119.707790">
        <ele>1613.172</ele>
        <time>2018-12-27T19:06:35Z</time>
      </trkpt>
      <trkpt lat="37.685490" lon="-119.707970">
        <ele>1615.351</ele>
        <time>2018-12-27T19:06:55Z</time>
      </trkpt>
      <trkpt lat="37.685410" lon="-119.708100">
        <ele>1616.127</ele>
        <time>2018-12-27T19:07:15Z</time>
      </trkpt>
      <trkpt lat="37.685340" lon="-119.708250">
        <ele>1616.668</ele>
        <time>2018-12-27T19:07:35Z</time>
      </trkpt>
      <trkpt lat="37.685270" lon="-119.708440">
        <ele>1616.614</ele>
        <time>2018-12-27T19:07:55Z</time>
      </trkpt>
      <trkpt lat="37.685230" lon="-119.708550">
        <ele>1616.408</ele>
        <time>2018-12-27T19:08:15Z</time>
      </trkpt>
      <trkpt lat="37.685160" lon="-119.708730">
        <ele>1616.115</ele>
        <time>2018-12-27T19:08:35Z</time>
      </trkpt>
      <trkpt lat="37.685080" lon="-119.708880">
        <ele>1616.193</ele>
        <time>2018-12-27T19:08:55Z</time>
      </trkpt>
      <trkpt lat="37.685050" lon="-119.708940">
        <ele>1616.178</ele>
        <time>2018-12-27T19:09:15Z</time>
      </trkpt>
      <trkpt lat="37.685000" lon="-119.709000">
        <ele>1616.358</ele>
        <time>2018-12-27T19:09:35Z</time>
      </trkpt>
      <trkpt lat="37.684940" lon="-119.709060">
        <ele>1616.752</ele>
        <time>2018-12-27T19:09:55Z</time>
      </trkpt>
      <trkpt lat="37.684830" lon="-119.709140">
        <ele>1617.822</ele>
        <time>2018-12-27T19:10:15Z</time>
      </trkpt>
      <trkpt lat="37.684660" lon="-119.709260">
        <ele>1619.348</ele>
        <time>2018-12-27T19:10:35Z</time>
      </trkpt>
      <trkpt lat="37.684540" lon="-119.709340">
        <ele>1620.477</ele>
        <time>2018-12-27T19:10:55Z</time>
      </trkpt>
      <trkpt lat="37.684420" lon="-119.709420">
        <ele>1621.957</ele>
        <time>2018-12-27T19:11:15Z</time>
      </trkpt>
      <trkpt lat="37.684260" lon="-119.709520">
        <ele>1623.600</ele>
        <time>2018-12-27T19:11:35Z</time>
      </trkpt>
      <trkpt lat="37.684110" lon="-119.709610">
        <ele>1626.720</ele>
        <time>2018-12-27T19:11:55Z</time>
      </trkpt>
      <trkpt lat="37.683970" lon="-119.709700">
        <ele>1628.608</ele>
        <time>2018-12-27T19:12:15Z</time>
      </trkpt>
      <trkpt lat="37.683900" lon="-119.709730">
        <ele>1629.028</ele>
        <time>2018-12-27T19:12:35Z</time>
      </trkpt>
      <trkpt lat="37.683830" lon="-119.709770">
        <ele>1628.966</ele>
        <time>2018-12-27T19:12:55Z</time>
      </trkpt>
      <trkpt lat="37.683760" lon="-119.709800">
        <ele>1629.091</ele>
        <time>2018-12-27T19:13:15Z</time>
      </trkpt>
      <trkpt lat="37.683690" lon="-119.709810">
        <ele>1629.131</ele>
        <time>2018-12-27T19:13:35Z</time>
      </trkpt>
      <trkpt lat="37.683590" lon="-119.709820">
        <ele>1629.275</ele>
        <time>2018-12-27T19:13:55Z</time>
      </trkpt>
      <trkpt lat="37.683510" lon="-119.709810">
        <ele>1629.855</ele>
        <time>2018-12-27T19:14:15Z</time>
      </trkpt>
      <trkpt lat="37.683410" lon="-119.709800">
        <ele>1630.131</ele>
        <time>2018-12-27T19:14:35Z</time>
      </trkpt>
      <trkpt lat="37.683320" lon="-119.709770">
        <ele>1630.610</ele>
        <time>2018-12-27T19:14:55Z</time>
      </trkpt>
      <trkpt lat="37.683250" lon="-119.709740">
        <ele>1631.094</ele>
        <time>2018-12-27T19:15:15Z</time>
      </trkpt>
      <trkpt lat="37.683110" lon="-119.709670">
        <ele>1631.857</ele>
        <time>2018-12-27T19:15:35Z</time>
      </trkpt>
      <trkpt lat="37.683020" lon="-119.709600">
        <ele>1632.622</ele>
        <time>2018-12-27T19:15:55Z</time>
      </trkpt>
      <trkpt lat="37.682890" lon="-119.709500">
        <ele>1634.708</ele>
        <time>2018-12-27T19:16:15Z</time>
      </trkpt>
      <trkpt lat="37.682790" lon="-119.709410">
        <ele>1635.542</ele>
        <time>2018-12-27T19:16:35Z</time>
      </trkpt>
      <trkpt lat="37.682690" lon="-119.709340">
        <ele>1634.650</ele>
        <time>2018-12-27T19:16:55Z</time>
      </trkpt>
      <trkpt lat="37.682460" lon="-119.709150">
        <ele>1637.485</ele>
        <time>2018-12-27T19:17:15Z</time>
      </trkpt>
      <trkpt lat="37.681960" lon="-119.708740">
        <ele>1643.415</ele>
        <time>2018-12-27T19:17:35Z</time>
      </trkpt>
      <trkpt lat="37.681840" lon="-119.708640">
        <ele>1644.429</ele>
        <time>2018-12-27T19:17:55Z</time>
      </trkpt>
      <trkpt lat="37.681790" lon="-119.708590">
        <ele>1644.699</ele>
        <time>2018-12-27T19:18:15Z</time>
      </trkpt>
      <trkpt lat="37.681630" lon="-119.708460">
        <ele>1645.715</ele>
        <time>2018-12-27T19:18:35Z</time>
      </trkpt>
      <trkpt lat="37.681450" lon="-119.708330">
        <ele>1647.854</ele>
        <time>2018-12-27T19:18:55Z</time>
      </trkpt>
      <trkpt lat="37.681330" lon="-119.708260">
        <ele>1647.831</ele>
        <time>2018-12-27T19:19:15Z</time>
      </trkpt>
      <trkpt lat="37.681220" lon="-119.708190">
        <ele>1647.661</ele>
        <time>2018-12-27T19:19:35Z</time>
      </trkpt>
      <trkpt lat="37.681110" lon="-119.708140">
        <ele>1648.807</ele>
        <time>2018-12-27T19:19:55Z</time>
      </trkpt>
      <trkpt lat="37.681010" lon="-119.708100">
        <ele>1649.308</ele>
        <time>2018-12-27T19:20:15Z</time>
      </trkpt>
      <trkpt lat="37.680920" lon="-119.708070">
        <ele>1649.316</ele>
        <time>2018-12-27T19:20:35Z</time>
      </trkpt>
      <trkpt lat="37.680700" lon="-119.708000">
        <ele>1648.384</ele>
        <time>2018-12-27T19:20:55Z</time>
      </trkpt>
      <trkpt lat="37.680450" lon="-119.707940">
        <ele>1647.219</ele>
        <time>2018-12-27T19:21:15Z</time>
      </trkpt>
      <trkpt lat="37.680230" lon="-119.707890">
        <ele>1648.079</ele>
        <time>2018-12-27T19:21:35Z</time>
      </trkpt>
      <trkpt lat="37.680070" lon="-119.707870">
        <ele>1650.423</ele>
        <time>2018-12-27T19:21:55Z</time>
      </trkpt>
      <trkpt lat="37.679980" lon="-119.707860">
        <ele>1653.083</ele>
        <time>2018-12-27T19:22:15Z</time>
      </trkpt>
      <trkpt lat="37.679880" lon="-119.707850">
        <ele>1655.719</ele>
        <time>2018-12-27T19:22:35Z</time>
      </trkpt>
      <trkpt lat="37.679780" lon="-119.707860">
        <ele>1656.998</ele>
        <time>2018-12-27T19:22:55Z</time>
      </trkpt>
      <trkpt lat="37.679680" lon="-119.707870">
        <ele>1657.917</ele>
        <time>2018-12-27T19:23:15Z</time>
      </trkpt>
      <trkpt lat="37.679560" lon="-119.707900">
        <ele>1658.287</ele>
        <time>2018-12-27T19:23:35Z</time>
      </trkpt>
      <trkpt lat="37.679380" lon="-119.707960">
        <ele>1658.515</ele>
        <time>2018-12-27T19:23:55Z</time>
      </trkpt>
      <trkpt lat="37.679230" lon="-119.708020">
        <ele>1659.008</ele>
        <time>2018-12-27T19:24:15Z</time>
      </trkpt>
      <trkpt lat="37.679140" lon="-119.708060">
        <ele>1659.084</ele>
        <time>2018-12-27T19:24:35Z</time>
      </trkpt>
      <trkpt lat="37.679040" lon="-119.708100">
        <ele>1659.182</ele>
        <time>2018-12-27T19:24:55Z</time>
      </trkpt>
      <trkpt lat="37.678980" lon="-119.708130">
        <ele>1658.577</ele>
        <time>2018-12-27T19:25:15Z</time>
      </trkpt>
      <trkpt lat="37.678910" lon="-119.708150">
        <ele>1658.397</ele>
        <time>2018-12-27T19:25:35Z</time>
      </trkpt>
      <trkpt lat="37.678840" lon="-119.708170">
        <ele>1658.171</ele>
        <time>2018-12-27T19:25:55Z</time>
      </trkpt>
      <trkpt lat="37.678720" lon="-119.708190">
        <ele>1658.281</ele>
        <time>2018-12-27T19:26:15Z</time>
      </trkpt>
      <trkpt lat="37.678660" lon="-119.708190">
        <ele>1658.867</ele>
        <time>2018-12-27T19:26:35Z</time>
      </trkpt>
      <trkpt lat="37.678530" lon="-119.708170">
        <ele>1660.626</ele>
        <time>2018-12-27T19:26:55Z</time>
      </trkpt>
      <trkpt lat="37.678460" lon="-119.708150">
        <ele>1661.723</ele>
        <time>2018-12-27T19:27:15Z</time>
      </trkpt>
      <trkpt lat="37.678400" lon="-119.708120">
        <ele>1662.383</ele>
        <time>2018-12-27T19:27:35Z</time>
      </trkpt>
      <trkpt lat="37.678300" lon="-119.708050">
        <ele>1663.311</ele>
        <time>2018-12-27T19:27:55Z</time>
      </trkpt>
      <trkpt lat="37.678230" lon="-119.707980">
        <ele>1664.008</ele>
        <time>2018-12-27T19:28:15Z</time>
      </trkpt>
      <trkpt lat="37.678170" lon="-119.707900">
        <ele>1664.415</ele>
        <time>2018-12-27T19:28:35Z</time>
      </trkpt>
      <trkpt lat="37.678110" lon="-119.707800">
        <ele>1664.613</ele>
        <time>2018-12-27T19:28:55Z</time>
      </trkpt>
      <trkpt lat="37.678060" lon="-119.707710">
        <ele>1664.748</ele>
        <time>2018-12-27T19:29:15Z</time>
      </trkpt>
      <trkpt lat="37.678000" lon="-119.707510">
        <ele>1665.428</ele>
        <time>2018-12-27T19:29:35Z</time>
      </trkpt>
      <trkpt lat="37.677930" lon="-119.707210">
        <ele>1666.562</ele>
        <time>2018-12-27T19:29:55Z</time>
      </trkpt>
      <trkpt lat="37.677900" lon="-119.707110">
        <ele>1666.682</ele>
        <time>2018-12-27T19:30:15Z</time>
      </trkpt>
      <trkpt lat="37.677870" lon="-119.707040">
        <ele>1666.518</ele>
        <time>2018-12-27T19:30:35Z</time>
      </trkpt>
      <trkpt lat="37.677800" lon="-119.706870">
        <ele>1667.127</ele>
        <time>2018-12-27T19:30:55Z</time>
      </trkpt>
      <trkpt lat="37.677780" lon="-119.706840">
        <ele>1667.197</ele>
        <time>2018-12-27T19:31:15Z</time>
      </trkpt>
      <trkpt lat="37.677750" lon="-119.706810">
        <ele>1666.923</ele>
        <time>2018-12-27T19:31:35Z</time>
      </trkpt>
      <trkpt lat="37.677730" lon="-119.706780">
        <ele>1667.325</ele>
        <time>2018-12-27T19:31:55Z</time>
      </trkpt>
      <trkpt lat="37.677710" lon="-119.706750">
        <ele>1667.808</ele>
        <time>2018-12-27T19:32:15Z</time>
      </trkpt>
      <trkpt lat="37.677670" lon="-119.706720">
        <ele>1667.992</ele>
        <time>2018-12-27T19:32:35Z</time>
      </trkpt>
      <trkpt lat="37.677630" lon="-119.706680">
        <ele>1668.550</ele>
        <time>2018-12-27T19:32:55Z</time>
      </trkpt>
      <trkpt lat="37.677590" lon="-119.706650">
        <ele>1669.665</ele>
        <time>2018-12-27T19:33:15Z</time>
      </trkpt>
      <trkpt lat="37.677550" lon="-119.706620">
        <ele>1670.635</ele>
        <time>2018-12-27T19:33:35Z</time>
      </trkpt>
      <trkpt lat="37.677520" lon="-119.706600">
        <ele>1671.399</ele>
        <time>2018-12-27T19:33:55Z</time>
      </trkpt>
      <trkpt lat="37.677480" lon="-119.706580">
        <ele>1672.169</ele>
        <time>2018-12-27T19:34:15Z</time>
      </trkpt>
      <trkpt lat="37.677430" lon="-119.706570">
        <ele>1672.695</ele>
        <time>2018-12-27T19:34:35Z</time>
      </trkpt>
      <trkpt lat="37.677350" lon="-119.706550">
        <ele>1673.474</ele>
        <time>2018-12-27T19:34:55Z</time>
      </trkpt>
      <trkpt lat="37.677310" lon="-119.706540">
        <ele>1673.718</ele>
        <time>2018-12-27T19:35:15Z</time>
      </trkpt>
      <trkpt lat="37.677260" lon="-119.706540">
        <ele>1673.698</ele>
        <time>2018-12-27T19:35:35Z</time>
      </trkpt>
      <trkpt lat="37.677110" lon="-119.706540">
        <ele>1673.417</ele>
        <time>2018-12-27T19:35:55Z</time>
      </trkpt>
      <trkpt lat="37.676830" lon="-119.706540">
        <ele>1677.608</ele>
        <time>2018-12-27T19:36:15Z</time>
      </trkpt>
      <trkpt lat="37.676570" lon="-119.706540">
        <ele>1679.234</ele>
        <time>2018-12-27T19:36:35Z</time>
      </trkpt>
      <trkpt lat="37.676400" lon="-119.706540">
        <ele>1680.352</ele>
        <time>2018-12-27T19:36:55Z</time>
      </trkpt>
      <trkpt lat="37.676340" lon="-119.706550">
        <ele>1680.447</ele>
        <time>2018-12-27T19:37:15Z</time>
      </trkpt>
      <trkpt lat="37.676260" lon="-119.706560">
        <ele>1680.747</ele>
        <time>2018-12-27T19:37:35Z</time>
      </trkpt>
      <trkpt lat="37.676210" lon="-119.706570">
        <ele>1681.211</ele>
        <time>2018-12-27T19:37:55Z</time>
      </trkpt>
      <trkpt lat="37.676160" lon="-119.706590">
        <ele>1681.551</ele>
        <time>2018-12-27T19:38:15Z</time>
      </trkpt>
      <trkpt lat="37.676110" lon="-119.706600">
        <ele>1682.267</ele>
        <time>2018-12-27T19:38:35Z</time>
      </trkpt>
      <trkpt lat="37.676080" lon="-119.706620">
        <ele>1682.186</ele>
        <time>2018-12-27T19:38:55Z</time>
      </trkpt>
      <trkpt lat="37.676030" lon="-119.706640">
        <ele>1682.439</ele>
        <time>2018-12-27T19:39:15Z</time>
      </trkpt>
      <trkpt lat="37.675980" lon="-119.706670">
        <ele>1682.401</ele>
        <time>2018-12-27T19:39:35Z</time>
      </trkpt>
      <trkpt lat="37.675910" lon="-119.706710">
        <ele>1682.721</ele>
        <time>2018-12-27T19:39:55Z</time>
      </trkpt>
      <trkpt lat="37.675820" lon="-119.706780">
        <ele>1682.208</ele>
        <time>2018-12-27T19:40:15Z</time>
      </trkpt>
      <trkpt lat="37.675780" lon="-119.706820">
        <ele>1681.736</ele>
        <time>2018-12-27T19:40:35Z</time>
      </trkpt>
      <trkpt lat="37.675730" lon="-119.706860">
        <ele>1681.914</ele>
        <time>2018-12-27T19:40:55Z</time>
      </trkpt>
      <trkpt lat="37.675680" lon="-119.706920">
        <ele>1681.999</ele>
        <time>2018-12-27T19:41:15Z</time>
      </trkpt>
      <trkpt lat="37.675590" lon="-119.707020">
        <ele>1682.129</ele>
        <time>2018-12-27T19:41:35Z</time>
      </trkpt>
      <trkpt lat="37.675560" lon="-119.707070">
        <ele>1681.773</ele>
        <time>2018-12-27T19:41:55Z</time>
      </trkpt>
      <trkpt lat="37.675510" lon="-119.707140">
        <ele>1681.533</ele>
        <time>2018-12-27T19:42:15Z</time>
      </trkpt>
      <trkpt lat="37.675430" lon="-119.707270">
        <ele>1680.939</ele>
        <time>2018-12-27T19:42:35Z</time>
      </trkpt>
      <trkpt lat="37.675390" lon="-119.707340">
        <ele>1680.618</ele>
        <time>2018-12-27T19:42:55Z</time>
      </trkpt>
      <trkpt lat="37.675340" lon="-119.707420">
        <ele>1680.491</ele>
        <time>2018-12-27T19:43:15Z</time>
      </trkpt>
      <trkpt lat="37.675290" lon="-119.707500">
        <ele>1680.181</ele>
        <time>2018-12-27T19:43:35Z</time>
      </trkpt>
      <trkpt lat="37.675260" lon="-119.707540">
        <ele>1680.119</ele>
        <time>2018-12-27T19:43:55Z</time>
      </trkpt>
      <trkpt lat="37.675240" lon="-119.707590">
        <ele>1679.708</ele>
        <time>2018-12-27T19:44:15Z</time>
      </trkpt>
      <trkpt lat="37.675200" lon="-119.707630">
        <ele>1679.892</ele>
        <time>2018-12-27T19:44:35Z</time>
      </trkpt>
      <trkpt lat="37.675160" lon="-119.707680">
        <ele>1679.780</ele>
        <time>2018-12-27T19:44:55Z</time>
      </trkpt>
      <trkpt lat="37.675120" lon="-119.707720">
        <ele>1679.755</ele>
        <time>2018-12-27T19:45:15Z</time>
      </trkpt>
      <trkpt lat="37.675070" lon="-119.707760">
        <ele>1679.955</ele>
        <time>2018-12-27T19:45:35Z</time>
      </trkpt>
      <trkpt lat="37.675000" lon="-119.707820">
        <ele>1680.079</ele>
        <time>2018-12-27T19:45:55Z</time>
      </trkpt>
      <trkpt lat="37.674950" lon="-119.707850">
        <ele>1680.369</ele>
        <time>2018-12-27T19:46:15Z</time>
      </trkpt>
      <trkpt lat="37.674900" lon="-119.707880">
        <ele>1680.515</ele>
        <time>2018-12-27T19:46:35Z</time>
      </trkpt>
      <trkpt lat="37.674850" lon="-119.707900">
        <ele>1680.894</ele>
        <time>2018-12-27T19:46:55Z</time>
      </trkpt>
      <trkpt lat="37.674750" lon="-119.707930">
        <ele>1681.316</ele>
        <time>2018-12-27T19:47:15Z</time>
      </trkpt>
      <trkpt lat="37.674690" lon="-119.707940">
        <ele>1681.876</ele>
        <time>2018-12-27T19:47:35Z</time>
      </trkpt>
      <trkpt lat="37.674640" lon="-119.707940">
        <ele>1682.313</ele>
        <time>2018-12-27T19:47:55Z</time>
      </trkpt>
      <trkpt lat="37.674580" lon="-119.707940">
        <ele>1683.008</ele>
        <time>2018-12-27T19:48:15Z</time>
      </trkpt>
      <trkpt lat="37.674520" lon="-119.707930">
        <ele>1684.054</ele>
        <time>2018-12-27T19:48:35Z</time>
      </trkpt>
      <trkpt lat="37.674220" lon="-119.707880">
        <ele>1688.552</ele>
        <time>2018-12-27T19:48:55Z</time>
      </trkpt>
      <trkpt lat="37.674180" lon="-119.707880">
        <ele>1688.887</ele>
        <time>2018-12-27T19:49:15Z</time>
      </trkpt>
      <trkpt lat="37.674130" lon="-119.707880">
        <ele>1689.287</ele>
        <time>2018-12-27T19:49:35Z</time>
      </trkpt>
      <trkpt lat="37.674060" lon="-119.707890">
        <ele>1689.661</ele>
        <time>2018-12-27T19:49:55Z</time>
      </trkpt>
      <trkpt lat="37.673990" lon="-119.707890">
        <ele>1690.181</ele>
        <time>2018-12-27T19:50:15Z</time>
      </trkpt>
      <trkpt lat="37.673930" lon="-119.707910">
        <ele>1690.337</ele>
        <time>2018-12-27T19:50:35Z</time>
      </trkpt>
      <trkpt lat="37.673880" lon="-119.707920">
        <ele>1690.656</ele>
        <time>2018-12-27T19:50:55Z</time>
      </trkpt>
      <trkpt lat="37.672970" lon="-119.708210">
        <ele>1691.776</ele>
        <time>2018-12-27T19:51:15Z</time>
      </trkpt>
      <trkpt lat="37.672890" lon="-119.708240">
        <ele>1691.690</ele>
        <time>2018-12-27T19:51:35Z</time>
      </trkpt>
      <trkpt lat="37.672780" lon="-119.708280">
        <ele>1691.719</ele>
        <time>2018-12-27T19:51:55Z</time>
      </trkpt>
      <trkpt lat="37.672710" lon="-119.708320">
        <ele>1691.608</ele>
        <time>2018-12-27T19:52:15Z</time>
      </trkpt>
      <trkpt lat="37.672640" lon="-119.708360">
        <ele>1691.780</ele>
        <time>2018-12-27T19:52:35Z</time>
      </trkpt>
      <trkpt lat="37.672570" lon="-119.708400">
        <ele>1692.658</ele>
        <time>2018-12-27T19:52:55Z</time>
      </trkpt>
      <trkpt lat="37.672510" lon="-119.708450">
        <ele>1693.133</ele>
        <time>2018-12-27T19:53:15Z</time>
      </trkpt>
      <trkpt lat="37.672450" lon="-119.708510">
        <ele>1693.573</ele>
        <time>2018-12-27T19:53:35Z</time>
      </trkpt>
      <trkpt lat="37.672390" lon="-119.708570">
        <ele>1693.957</ele>
        <time>2018-12-27T19:53:55Z</time>
      </trkpt>
      <trkpt lat="37.672340" lon="-119.708640">
        <ele>1694.287</ele>
        <time>2018-12-27T19:54:15Z</time>
      </trkpt>
      <trkpt lat="37.672300" lon="-119.708710">
        <ele>1694.223</ele>
        <time>2018-12-27T19:54:35Z</time>
      </trkpt>
      <trkpt lat="37.672240" lon="-119.708800">
        <ele>1694.372</ele>
        <time>2018-12-27T19:54:55Z</time>
      </trkpt>
      <trkpt lat="37.672200" lon="-119.708870">
        <ele>1694.288</ele>
        <time>2018-12-27T19:55:15Z</time>
      </trkpt>
      <trkpt lat="37.672100" lon="-119.709030">
        <ele>1693.524</ele>
        <time>2018-12-27T19:55:35Z</time>
      </trkpt>
      <trkpt lat="37.672000" lon="-119.709210">
        <ele>1693.926</ele>
        <time>2018-12-27T19:55:55Z</time>
      </trkpt>
      <trkpt lat="37.671900" lon="-119.709360">
        <ele>1694.408</ele>
        <time>2018-12-27T19:56:15Z</time>
      </trkpt>
      <trkpt lat="37.671870" lon="-119.709400">
        <ele>1695.131</ele>
        <time>2018-12-27T19:56:35Z</time>
      </trkpt>
      <trkpt lat="37.671830" lon="-119.709450">
        <ele>1696.269</ele>
        <time>2018-12-27T19:56:55Z</time>
      </trkpt>
      <trkpt lat="37.671750" lon="-119.709530">
        <ele>1698.324</ele>
        <time>2018-12-27T19:57:15Z</time>
      </trkpt>
      <trkpt lat="37.671710" lon="-119.709560">
        <ele>1698.974</ele>
        <time>2018-12-27T19:57:35Z</time>
      </trkpt>
      <trkpt lat="37.671670" lon="-119.709600">
        <ele>1699.198</ele>
        <time>2018-12-27T19:57:55Z</time>
      </trkpt>
      <trkpt lat="37.671590" lon="-119.709650">
        <ele>1699.538</ele>
        <time>2018-12-27T19:58:15Z</time>
      </trkpt>
      <trkpt lat="37.671560" lon="-119.709670">
        <ele>1699.724</ele>
        <time>2018-12-27T19:58:35Z</time>
      </trkpt>
      <trkpt lat="37.671510" lon="-119.709690">
        <ele>1700.223</ele>
        <time>2018-12-27T19:58:55Z</time>
      </trkpt>
      <trkpt lat="37.671450" lon="-119.709720">
        <ele>1700.253</ele>
        <time>2018-12-27T19:59:15Z</time>
      </trkpt>
      <trkpt lat="37.671340" lon="-119.709740">
        <ele>1700.804</ele>
        <time>2018-12-27T19:59:35Z</time>
      </trkpt>
      <trkpt lat="37.671250" lon="-119.709740">
        <ele>1701.614</ele>
        <time>2018-12-27T19:59:55Z</time>
      </trkpt>
      <trkpt lat="37.671160" lon="-119.709730">
        <ele>1702.108</ele>
        <time>2018-12-27T20:00:15Z</time>
      </trkpt>
      <trkpt lat="37.670990" lon="-119.709700">
        <ele>1703.498</ele>
        <time>2018-12-27T20:00:35Z</time>
      </trkpt>
      <trkpt lat="37.670890" lon="-119.709690">
        <ele>1703.516</ele>
        <time>2018-12-27T20:00:55Z</time>
      </trkpt>
      <trkpt lat="37.670790" lon="-119.709700">
        <ele>1702.961</ele>
        <time>2018-12-27T20:01:15Z</time>
      </trkpt>
      <trkpt lat="37.670680" lon="-119.709720">
        <ele>1702.151</ele>
        <time>2018-12-27T20:01:35Z</time>
      </trkpt>
      <trkpt lat="37.670600" lon="-119.709760">
        <ele>1701.265</ele>
        <time>2018-12-27T20:01:55Z</time>
      </trkpt>
      <trkpt lat="37.670540" lon="-119.709800">
        <ele>1700.555</ele>
        <time>2018-12-27T20:02:15Z</time>
      </trkpt>
      <trkpt lat="37.670530" lon="-119.709810">
        <ele>1700.411</ele>
        <time>2018-12-27T20:02:35Z</time>
      </trkpt>
      <trkpt lat="37.670510" lon="-119.709830">
        <ele>1700.280</ele>
        <time>2018-12-27T20:02:55Z</time>
      </trkpt>
      <trkpt lat="37.670480" lon="-119.709850">
        <ele>1700.152</ele>
        <time>2018-12-27T20:03:15Z</time>
      </trkpt>
      <trkpt lat="37.670450" lon="-119.709880">
        <ele>1699.953</ele>
        <time>2018-12-27T20:03:35Z</time>
      </trkpt>
      <trkpt lat="37.670380" lon="-119.709960">
        <ele>1700.308</ele>
        <time>2018-12-27T20:03:55Z</time>
      </trkpt>
      <trkpt lat="37.670320" lon="-119.710050">
        <ele>1700.908</ele>
        <time>2018-12-27T20:04:15Z</time>
      </trkpt>
      <trkpt lat="37.670240" lon="-119.710170">
        <ele>1701.288</ele>
        <time>2018-12-27T20:04:35Z</time>
      </trkpt>
      <trkpt lat="37.670200" lon="-119.710230">
        <ele>1701.156</ele>
        <time>2018-12-27T20:04:55Z</time>
      </trkpt>
      <trkpt lat="37.670170" lon="-119.710260">
        <ele>1701.361</ele>
        <time>2018-12-27T20:05:15Z</time>
      </trkpt>
      <trkpt lat="37.670140" lon="-119.710290">
        <ele>1701.651</ele>
        <time>2018-12-27T20:05:35Z</time>
      </trkpt>
      <trkpt lat="37.670110" lon="-119.710320">
        <ele>1701.765</ele>
        <time>2018-12-27T20:05:55Z</time>
      </trkpt>
      <trkpt lat="37.670070" lon="-119.710350">
        <ele>1701.965</ele>
        <time>2018-12-27T20:06:15Z</time>
      </trkpt>
      <trkpt lat="37.670040" lon="-119.710370">
        <ele>1702.191</ele>
        <time>2018-12-27T20:06:35Z</time>
      </trkpt>
      <trkpt lat="37.669960" lon="-119.710420">
        <ele>1702.740</ele>
        <time>2018-12-27T20:06:55Z</time>
      </trkpt>
      <trkpt lat="37.669840" lon="-119.710460">
        <ele>1704.089</ele>
        <time>2018-12-27T20:07:15Z</time>
      </trkpt>
      <trkpt lat="37.669740" lon="-119.710490">
        <ele>1704.906</ele>
        <time>2018-12-27T20:07:35Z</time>
      </trkpt>
      <trkpt lat="37.669640" lon="-119.710540">
        <ele>1705.326</ele>
        <time>2018-12-27T20:07:55Z</time>
      </trkpt>
      <trkpt lat="37.669570" lon="-119.710580">
        <ele>1705.508</ele>
        <time>2018-12-27T20:08:15Z</time>
      </trkpt>
      <trkpt lat="37.669530" lon="-119.710610">
        <ele>1705.531</ele>
        <time>2018-12-27T20:08:35Z</time>
      </trkpt>
      <trkpt lat="37.669480" lon="-119.710650">
        <ele>1705.319</ele>
        <time>2018-12-27T20:08:55Z</time>
      </trkpt>
      <trkpt lat="37.669410" lon="-119.710700">
        <ele>1705.164</ele>
        <time>2018-12-27T20:09:15Z</time>
      </trkpt>
      <trkpt lat="37.669360" lon="-119.710730">
        <ele>1705.254</ele>
        <time>2018-12-27T20:09:35Z</time>
      </trkpt>
      <trkpt lat="37.669320" lon="-119.710760">
        <ele>1705.238</ele>
        <time>2018-12-27T20:09:55Z</time>
      </trkpt>
      <trkpt lat="37.669260" lon="-119.710790">
        <ele>1705.568</ele>
        <time>2018-12-27T20:10:15Z</time>
      </trkpt>
      <trkpt lat="37.669190" lon="-119.710830">
        <ele>1705.784</ele>
        <time>2018-12-27T20:10:35Z</time>
      </trkpt>
      <trkpt lat="37.669130" lon="-119.710840">
        <ele>1706.413</ele>
        <time>2018-12-27T20:10:55Z</time>
      </trkpt>
      <trkpt lat="37.669080" lon="-119.710850">
        <ele>1707.027</ele>
        <time>2018-12-27T20:11:15Z</time>
      </trkpt>
      <trkpt lat="37.669010" lon="-119.710860">
        <ele>1707.968</ele>
        <time>2018-12-27T20:11:35Z</time>
      </trkpt>
      <trkpt lat="37.668970" lon="-119.710850">
        <ele>1708.914</ele>
        <time>2018-12-27T20:11:55Z</time>
      </trkpt>
      <trkpt lat="37.668890" lon="-119.710830">
        <ele>1711.008</ele>
        <time>2018-12-27T20:12:15Z</time>
      </trkpt>
      <trkpt lat="37.668830" lon="-119.710820">
        <ele>1712.585</ele>
        <time>2018-12-27T20:12:35Z</time>
      </trkpt>
      <trkpt lat="37.668600" lon="-119.710780">
        <ele>1716.283</ele>
        <time>2018-12-27T20:12:55Z</time>
      </trkpt>
      <trkpt lat="37.668530" lon="-119.710780">
        <ele>1716.868</ele>
        <time>2018-12-27T20:13:15Z</time>
      </trkpt>
      <trkpt lat="37.668480" lon="-119.710790">
        <ele>1717.048</ele>
        <time>2018-12-27T20:13:35Z</time>
      </trkpt>
      <trkpt lat="37.668400" lon="-119.710800">
        <ele>1717.722</ele>
        <time>2018-12-27T20:13:55Z</time>
      </trkpt>
      <trkpt lat="37.668230" lon="-119.710860">
        <ele>1718.132</ele>
        <time>2018-12-27T20:14:15Z</time>
      </trkpt>
      <trkpt lat="37.668170" lon="-119.710900">
        <ele>1718.028</ele>
        <time>2018-12-27T20:14:35Z</time>
      </trkpt>
      <trkpt lat="37.668110" lon="-119.710940">
        <ele>1718.257</ele>
        <time>2018-12-27T20:14:55Z</time>
      </trkpt>
      <trkpt lat="37.668060" lon="-119.710980">
        <ele>1718.155</ele>
        <time>2018-12-27T20:15:15Z</time>
      </trkpt>
      <trkpt lat="37.668020" lon="-119.711010">
        <ele>1718.207</ele>
        <time>2018-12-27T20:15:35Z</time>
      </trkpt>
      <trkpt lat="37.667980" lon="-119.711060">
        <ele>1717.917</ele>
        <time>2018-12-27T20:15:55Z</time>
      </trkpt>
      <trkpt lat="37.667940" lon="-119.711110">
        <ele>1717.708</ele>
        <time>2018-12-27T20:16:15Z</time>
      </trkpt>
      <trkpt lat="37.667890" lon="-119.711180">
        <ele>1717.728</ele>
        <time>2018-12-27T20:16:35Z</time>
      </trkpt>
      <trkpt lat="37.667840" lon="-119.711250">
        <ele>1717.886</ele>
        <time>2018-12-27T20:16:55Z</time>
      </trkpt>
      <trkpt lat="37.667800" lon="-119.711320">
        <ele>1717.861</ele>
        <time>2018-12-27T20:17:15Z</time>
      </trkpt>
      <trkpt lat="37.667730" lon="-119.711490">
        <ele>1716.731</ele>
        <time>2018-12-27T20:17:35Z</time>
      </trkpt>
      <trkpt lat="37.667690" lon="-119.711580">
        <ele>1716.515</ele>
        <time>2018-12-27T20:17:55Z</time>
      </trkpt>
      <trkpt lat="37.667650" lon="-119.711650">
        <ele>1716.965</ele>
        <time>2018-12-27T20:18:15Z</time>
      </trkpt>
      <trkpt lat="37.667610" lon="-119.711740">
        <ele>1717.251</ele>
        <time>2018-12-27T20:18:35Z</time>
      </trkpt>
      <trkpt lat="37.667570" lon="-119.711810">
        <ele>1717.540</ele>
        <time>2018-12-27T20:18:55Z</time>
      </trkpt>
      <trkpt lat="37.667490" lon="-119.711940">
        <ele>1719.526</ele>
        <time>2018-12-27T20:19:15Z</time>
      </trkpt>
      <trkpt lat="37.667440" lon="-119.712010">
        <ele>1720.947</ele>
        <time>2018-12-27T20:19:35Z</time>
      </trkpt>
      <trkpt lat="37.667390" lon="-119.712070">
        <ele>1722.311</ele>
        <time>2018-12-27T20:19:55Z</time>
      </trkpt>
      <trkpt lat="37.667350" lon="-119.712120">
        <ele>1722.908</ele>
        <time>2018-12-27T20:20:15Z</time>
      </trkpt>
      <trkpt lat="37.667280" lon="-119.712170">
        <ele>1723.725</ele>
        <time>2018-12-27T20:20:35Z</time>
      </trkpt>
      <trkpt lat="37.667190" lon="-119.712250">
        <ele>1724.493</ele>
        <time>2018-12-27T20:20:55Z</time>
      </trkpt>
      <trkpt lat="37.667060" lon="-119.712330">
        <ele>1725.668</ele>
        <time>2018-12-27T20:21:15Z</time>
      </trkpt>
      <trkpt lat="37.666920" lon="-119.712400">
        <ele>1726.898</ele>
        <time>2018-12-27T20:21:35Z</time>
      </trkpt>
      <trkpt lat="37.666790" lon="-119.712460">
        <ele>1727.812</ele>
        <time>2018-12-27T20:21:55Z</time>
      </trkpt>
      <trkpt lat="37.666740" lon="-119.712480">
        <ele>1728.182</ele>
        <time>2018-12-27T20:22:15Z</time>
      </trkpt>
      <trkpt lat="37.666680" lon="-119.712510">
        <ele>1728.488</ele>
        <time>2018-12-27T20:22:35Z</time>
      </trkpt>
      <trkpt lat="37.666620" lon="-119.712530">
        <ele>1728.937</ele>
        <time>2018-12-27T20:22:55Z</time>
      </trkpt>
      <trkpt lat="37.666550" lon="-119.712560">
        <ele>1729.236</ele>
        <time>2018-12-27T20:23:15Z</time>
      </trkpt>
      <trkpt lat="37.666470" lon="-119.712590">
        <ele>1729.617</ele>
        <time>2018-12-27T20:23:35Z</time>
      </trkpt>
      <trkpt lat="37.666340" lon="-119.712600">
        <ele>1730.618</ele>
        <time>2018-12-27T20:23:55Z</time>
      </trkpt>
      <trkpt lat="37.666190" lon="-119.712600">
        <ele>1731.808</ele>
        <time>2018-12-27T20:24:15Z</time>
      </trkpt>
      <trkpt lat="37.666070" lon="-119.712570">
        <ele>1733.096</ele>
        <time>2018-12-27T20:24:35Z</time>
      </trkpt>
      <trkpt lat="37.665970" lon="-119.712510">
        <ele>1734.814</ele>
        <time>2018-12-27T20:24:55Z</time>
      </trkpt>
      <trkpt lat="37.665890" lon="-119.712450">
        <ele>1736.389</ele>
        <time>2018-12-27T20:25:15Z</time>
      </trkpt>
      <trkpt lat="37.665770" lon="-119.712340">
        <ele>1738.479</ele>
        <time>2018-12-27T20:25:35Z</time>
      </trkpt>
      <trkpt lat="37.665700" lon="-119.712250">
        <ele>1740.153</ele>
        <time>2018-12-27T20:25:55Z</time>
      </trkpt>
      <trkpt lat="37.665290" lon="-119.711780">
        <ele>1746.483</ele>
        <time>2018-12-27T20:26:15Z</time>
      </trkpt>
      <trkpt lat="37.665200" lon="-119.711690">
        <ele>1748.449</ele>
        <time>2018-12-27T20:26:35Z</time>
      </trkpt>
      <trkpt lat="37.665100" lon="-119.711590">
        <ele>1750.228</ele>
        <time>2018-12-27T20:26:55Z</time>
      </trkpt>
      <trkpt lat="37.665020" lon="-119.711520">
        <ele>1750.649</ele>
        <time>2018-12-27T20:27:15Z</time>
      </trkpt>
      <trkpt lat="37.664960" lon="-119.711480">
        <ele>1751.202</ele>
        <time>2018-12-27T20:27:35Z</time>
      </trkpt>
      <trkpt lat="37.664900" lon="-119.711450">
        <ele>1751.322</ele>
        <time>2018-12-27T20:27:55Z</time>
      </trkpt>
      <trkpt lat="37.664820" lon="-119.711400">
        <ele>1752.608</ele>
        <time>2018-12-27T20:28:15Z</time>
      </trkpt>
      <trkpt lat="37.664780" lon="-119.711380">
        <ele>1753.217</ele>
        <time>2018-12-27T20:28:35Z</time>
      </trkpt>
      <trkpt lat="37.664710" lon="-119.711350">
        <ele>1753.535</ele>
        <time>2018-12-27T20:28:55Z</time>
      </trkpt>
      <trkpt lat="37.664650" lon="-119.711330">
        <ele>1753.230</ele>
        <time>2018-12-27T20:29:15Z</time>
      </trkpt>
      <trkpt lat="37.664600" lon="-119.711310">
        <ele>1753.090</ele>
        <time>2018-12-27T20:29:35Z</time>
      </trkpt>
      <trkpt lat="37.664420" lon="-119.711240">
        <ele>1752.974</ele>
        <time>2018-12-27T20:29:55Z</time>
      </trkpt>
      <trkpt lat="37.664390" lon="-119.711220">
        <ele>1753.264</ele>
        <time>2018-12-27T20:30:15Z</time>
      </trkpt>
      <trkpt lat="37.664340" lon="-119.711200">
        <ele>1753.090</ele>
        <time>2018-12-27T20:30:35Z</time>
      </trkpt>
      <trkpt lat="37.664240" lon="-119.711140">
        <ele>1753.249</ele>
        <time>2018-12-27T20:30:55Z</time>
      </trkpt>
      <trkpt lat="37.664190" lon="-119.711110">
        <ele>1753.267</ele>
        <time>2018-12-27T20:31:15Z</time>
      </trkpt>
      <trkpt lat="37.664110" lon="-119.711050">
        <ele>1753.381</ele>
        <time>2018-12-27T20:31:35Z</time>
      </trkpt>
      <trkpt lat="37.663290" lon="-119.710460">
        <ele>1754.719</ele>
        <time>2018-12-27T20:31:55Z</time>
      </trkpt>
      <trkpt lat="37.663150" lon="-119.710360">
        <ele>1757.608</ele>
        <time>2018-12-27T20:32:15Z</time>
      </trkpt>
      <trkpt lat="37.663020" lon="-119.710290">
        <ele>1760.159</ele>
        <time>2018-12-27T20:32:35Z</time>
      </trkpt>
      <trkpt lat="37.662940" lon="-119.710240">
        <ele>1761.737</ele>
        <time>2018-12-27T20:32:55Z</time>
      </trkpt>
      <trkpt lat="37.662880" lon="-119.710210">
        <ele>1762.322</ele>
        <time>2018-12-27T20:33:15Z</time>
      </trkpt>
      <trkpt lat="37.662820" lon="-119.710190">
        <ele>1762.272</ele>
        <time>2018-12-27T20:33:35Z</time>
      </trkpt>
      <trkpt lat="37.662760" lon="-119.710170">
        <ele>1762.136</ele>
        <time>2018-12-27T20:33:55Z</time>
      </trkpt>
      <trkpt lat="37.662690" lon="-119.710140">
        <ele>1762.166</ele>
        <time>2018-12-27T20:34:15Z</time>
      </trkpt>
      <trkpt lat="37.662610" lon="-119.710130">
        <ele>1761.492</ele>
        <time>2018-12-27T20:34:35Z</time>
      </trkpt>
      <trkpt lat="37.662550" lon="-119.710120">
        <ele>1761.471</ele>
        <time>2018-12-27T20:34:55Z</time>
      </trkpt>
      <trkpt lat="37.662480" lon="-119.710110">
        <ele>1761.499</ele>
        <time>2018-12-27T20:35:15Z</time>
      </trkpt>
      <trkpt lat="37.662390" lon="-119.710110">
        <ele>1760.407</ele>
        <time>2018-12-27T20:35:35Z</time>
      </trkpt>
      <trkpt lat="37.662320" lon="-119.710120">
        <ele>1760.827</ele>
        <time>2018-12-27T20:35:55Z</time>
      </trkpt>
      <trkpt lat="37.662170" lon="-119.710160">
        <ele>1764.208</ele>
        <time>2018-12-27T20:36:15Z</time>
      </trkpt>
      <trkpt lat="37.662090" lon="-119.710190">
        <ele>1766.072</ele>
        <time>2018-12-27T20:36:35Z</time>
      </trkpt>
      <trkpt lat="37.662030" lon="-119.710230">
        <ele>1766.110</ele>
        <time>2018-12-27T20:36:55Z</time>
      </trkpt>
      <trkpt lat="37.661330" lon="-119.710630">
        <ele>1766.465</ele>
        <time>2018-12-27T20:37:15Z</time>
      </trkpt>
      <trkpt lat="37.660790" lon="-119.710950">
        <ele>1766.775</ele>
        <time>2018-12-27T20:37:35Z</time>
      </trkpt>
      <trkpt lat="37.660610" lon="-119.711050">
        <ele>1768.299</ele>
        <time>2018-12-27T20:37:55Z</time>
      </trkpt>
      <trkpt lat="37.660510" lon="-119.711120">
        <ele>1769.059</ele>
        <time>2018-12-27T20:38:15Z</time>
      </trkpt>
      <trkpt lat="37.660440" lon="-119.711170">
        <ele>1769.055</ele>
        <time>2018-12-27T20:38:35Z</time>
      </trkpt>
      <trkpt lat="37.660380" lon="-119.711210">
        <ele>1769.014</ele>
        <time>2018-12-27T20:38:55Z</time>
      </trkpt>
      <trkpt lat="37.660300" lon="-119.711300">
        <ele>1768.641</ele>
        <time>2018-12-27T20:39:15Z</time>
      </trkpt>
      <trkpt lat="37.660030" lon="-119.711610">
        <ele>1769.781</ele>
        <time>2018-12-27T20:39:35Z</time>
      </trkpt>
      <trkpt lat="37.659930" lon="-119.711700">
        <ele>1772.109</ele>
        <time>2018-12-27T20:39:55Z</time>
      </trkpt>
      <trkpt lat="37.659770" lon="-119.711820">
        <ele>1774.308</ele>
        <time>2018-12-27T20:40:15Z</time>
      </trkpt>
      <trkpt lat="37.659650" lon="-119.711890">
        <ele>1775.277</ele>
        <time>2018-12-27T20:40:35Z</time>
      </trkpt>
      <trkpt lat="37.659550" lon="-119.711940">
        <ele>1775.955</ele>
        <time>2018-12-27T20:40:55Z</time>
      </trkpt>
      <trkpt lat="37.659440" lon="-119.711980">
        <ele>1776.730</ele>
        <time>2018-12-27T20:41:15Z</time>
      </trkpt>
      <trkpt lat="37.659320" lon="-119.712000">
        <ele>1777.910</ele>
        <time>2018-12-27T20:41:35Z</time>
      </trkpt>
      <trkpt lat="37.659220" lon="-119.712010">
        <ele>1778.624</ele>
        <time>2018-12-27T20:41:55Z</time>
      </trkpt>
      <trkpt lat="37.659140" lon="-119.712010">
        <ele>1779.254</ele>
        <time>2018-12-27T20:42:15Z</time>
      </trkpt>
      <trkpt lat="37.659050" lon="-119.712000">
        <ele>1780.210</ele>
        <time>2018-12-27T20:42:35Z</time>
      </trkpt>
      <trkpt lat="37.658910" lon="-119.711980">
        <ele>1780.469</ele>
        <time>2018-12-27T20:42:55Z</time>
      </trkpt>
      <trkpt lat="37.658820" lon="-119.711960">
        <ele>1780.694</ele>
        <time>2018-12-27T20:43:15Z</time>
      </trkpt>
      <trkpt lat="37.658710" lon="-119.711920">
        <ele>1780.957</ele>
        <time>2018-12-27T20:43:35Z</time>
      </trkpt>
      <trkpt lat="37.658640" lon="-119.711890">
        <ele>1780.722</ele>
        <time>2018-12-27T20:43:55Z</time>
      </trkpt>
      <trkpt lat="37.658590" lon="-119.711870">
        <ele>1780.508</ele>
        <time>2018-12-27T20:44:15Z</time>
      </trkpt>
      <trkpt lat="37.658500" lon="-119.711810">
        <ele>1780.792</ele>
        <time>2018-12-27T20:44:35Z</time>
      </trkpt>
      <trkpt lat="37.658480" lon="-119.711800">
        <ele>1780.750</ele>
        <time>2018-12-27T20:44:55Z</time>
      </trkpt>
      <trkpt lat="37.658410" lon="-119.711750">
        <ele>1781.145</ele>
        <time>2018-12-27T20:45:15Z</time>
      </trkpt>
      <trkpt lat="37.658360" lon="-119.711710">
        <ele>1781.445</ele>
        <time>2018-12-27T20:45:35Z</time>
      </trkpt>
      <trkpt lat="37.658310" lon="-119.711660">
        <ele>1781.899</ele>
        <time>2018-12-27T20:45:55Z</time>
      </trkpt>
      <trkpt lat="37.658250" lon="-119.711590">
        <ele>1782.239</ele>
        <time>2018-12-27T20:46:15Z</time>
      </trkpt>
      <trkpt lat="37.658120" lon="-119.711450">
        <ele>1783.215</ele>
        <time>2018-12-27T20:46:35Z</time>
      </trkpt>
      <trkpt lat="37.658020" lon="-119.711340">
        <ele>1783.824</ele>
        <time>2018-12-27T20:46:55Z</time>
      </trkpt>
      <trkpt lat="37.657990" lon="-119.711310">
        <ele>1783.698</ele>
        <time>2018-12-27T20:47:15Z</time>
      </trkpt>
      <trkpt lat="37.657940" lon="-119.711260">
        <ele>1783.115</ele>
        <time>2018-12-27T20:47:35Z</time>
      </trkpt>
      <trkpt lat="37.657890" lon="-119.711210">
        <ele>1783.826</ele>
        <time>2018-12-27T20:47:55Z</time>
      </trkpt>
      <trkpt lat="37.657810" lon="-119.711160">
        <ele>1784.808</ele>
        <time>2018-12-27T20:48:15Z</time>
      </trkpt>
      <trkpt lat="37.657760" lon="-119.711120">
        <ele>1785.762</ele>
        <time>2018-12-27T20:48:35Z</time>
      </trkpt>
      <trkpt lat="37.657700" lon="-119.711090">
        <ele>1786.130</ele>
        <time>2018-12-27T20:48:55Z</time>
      </trkpt>
      <trkpt lat="37.657660" lon="-119.711080">
        <ele>1786.065</ele>
        <time>2018-12-27T20:49:15Z</time>
      </trkpt>
      <trkpt lat="37.657540" lon="-119.711030">
        <ele>1787.245</ele>
        <time>2018-12-27T20:49:35Z</time>
      </trkpt>
      <trkpt lat="37.657450" lon="-119.711000">
        <ele>1787.879</ele>
        <time>2018-12-27T20:49:55Z</time>
      </trkpt>
      <trkpt lat="37.657370" lon="-119.710960">
        <ele>1788.289</ele>
        <time>2018-12-27T20:50:15Z</time>
      </trkpt>
      <trkpt lat="37.657310" lon="-119.710930">
        <ele>1788.425</ele>
        <time>2018-12-27T20:50:35Z</time>
      </trkpt>
      <trkpt lat="37.657240" lon="-119.710890">
        <ele>1788.664</ele>
        <time>2018-12-27T20:50:55Z</time>
      </trkpt>
      <trkpt lat="37.657180" lon="-119.710840">
        <ele>1789.049</ele>
        <time>2018-12-27T20:51:15Z</time>
      </trkpt>
      <trkpt lat="37.657110" lon="-119.710770">
        <ele>1789.402</ele>
        <time>2018-12-27T20:51:35Z</time>
      </trkpt>
      <trkpt lat="37.657070" lon="-119.710720">
        <ele>1789.922</ele>
        <time>2018-12-27T20:51:55Z</time>
      </trkpt>
      <trkpt lat="37.657020" lon="-119.710650">
        <ele>1790.808</ele>
        <time>2018-12-27T20:52:15Z</time>
      </trkpt>
      <trkpt lat="37.656970" lon="-119.710580">
        <ele>1791.717</ele>
        <time>2018-12-27T20:52:35Z</time>
      </trkpt>
      <trkpt lat="37.656890" lon="-119.710470">
        <ele>1792.415</ele>
        <time>2018-12-27T20:52:55Z</time>
      </trkpt>
      <trkpt lat="37.656810" lon="-119.710350">
        <ele>1793.690</ele>
        <time>2018-12-27T20:53:15Z</time>
      </trkpt>
      <trkpt lat="37.656740" lon="-119.710250">
        <ele>1795.420</ele>
        <time>2018-12-27T20:53:35Z</time>
      </trkpt>
      <trkpt lat="37.656660" lon="-119.710180">
        <ele>1795.584</ele>
        <time>2018-12-27T20:53:55Z</time>
      </trkpt>
      <trkpt lat="37.656620" lon="-119.710160">
        <ele>1795.014</ele>
        <time>2018-12-27T20:54:15Z</time>
      </trkpt>
      <trkpt lat="37.656570" lon="-119.710120">
        <ele>1795.080</ele>
        <time>2018-12-27T20:54:35Z</time>
      </trkpt>
      <trkpt lat="37.656520" lon="-119.710090">
        <ele>1795.199</ele>
        <time>2018-12-27T20:54:55Z</time>
      </trkpt>
      <trkpt lat="37.656400" lon="-119.710010">
        <ele>1796.723</ele>
        <time>2018-12-27T20:55:15Z</time>
      </trkpt>
      <trkpt lat="37.656220" lon="-119.709910">
        <ele>1796.483</ele>
        <time>2018-12-27T20:55:35Z</time>
      </trkpt>
      <trkpt lat="37.656120" lon="-119.709850">
        <ele>1796.611</ele>
        <time>2018-12-27T20:55:55Z</time>
      </trkpt>
      <trkpt lat="37.656040" lon="-119.709790">
        <ele>1797.208</ele>
        <time>2018-12-27T20:56:15Z</time>
      </trkpt>
      <trkpt lat="37.655990" lon="-119.709750">
        <ele>1797.575</ele>
        <time>2018-12-27T20:56:35Z</time>
      </trkpt>
      <trkpt lat="37.655940" lon="-119.709700">
        <ele>1798.413</ele>
        <time>2018-12-27T20:56:55Z</time>
      </trkpt>
      <trkpt lat="37.655900" lon="-119.709650">
        <ele>1799.298</ele>
        <time>2018-12-27T20:57:15Z</time>
      </trkpt>
      <trkpt lat="37.655840" lon="-119.709570">
        <ele>1800.198</ele>
        <time>2018-12-27T20:57:35Z</time>
      </trkpt>
      <trkpt lat="37.655790" lon="-119.709500">
        <ele>1800.212</ele>
        <time>2018-12-27T20:57:55Z</time>
      </trkpt>
      <trkpt lat="37.655760" lon="-119.709420">
        <ele>1800.762</ele>
        <time>2018-12-27T20:58:15Z</time>
      </trkpt>
      <trkpt lat="37.655740" lon="-119.709360">
        <ele>1801.098</ele>
        <time>2018-12-27T20:58:35Z</time>
      </trkpt>
      <trkpt lat="37.655700" lon="-119.709230">
        <ele>1801.557</ele>
        <time>2018-12-27T20:58:55Z</time>
      </trkpt>
      <trkpt lat="37.655680" lon="-119.709100">
        <ele>1802.176</ele>
        <time>2018-12-27T20:59:15Z</time>
      </trkpt>
      <trkpt lat="37.655670" lon="-119.709010">
        <ele>1802.590</ele>
        <time>2018-12-27T20:59:35Z</time>
      </trkpt>
      <trkpt lat="37.655670" lon="-119.708920">
        <ele>1802.919</ele>
        <time>2018-12-27T20:59:55Z</time>
      </trkpt>
      <trkpt lat="37.655680" lon="-119.708570">
        <ele>1804.308</ele>
        <time>2018-12-27T21:00:15Z</time>
      </trkpt>
      <trkpt lat="37.655740" lon="-119.707870">
        <ele>1810.510</ele>
        <time>2018-12-27T21:00:35Z</time>
      </trkpt>
      <trkpt lat="37.655780" lon="-119.707460">
        <ele>1813.988</ele>
        <time>2018-12-27T21:00:55Z</time>
      </trkpt>
      <trkpt lat="37.655810" lon="-119.707130">
        <ele>1815.143</ele>
        <time>2018-12-27T21:01:15Z</time>
      </trkpt>
      <trkpt lat="37.655840" lon="-119.706730">
        <ele>1816.013</ele>
        <time>2018-12-27T21:01:35Z</time>
      </trkpt>
      <trkpt lat="37.655850" lon="-119.706550">
        <ele>1816.157</ele>
        <time>2018-12-27T21:01:55Z</time>
      </trkpt>
      <trkpt lat="37.655870" lon="-119.706230">
        <ele>1816.017</ele>
        <time>2018-12-27T21:02:15Z</time>
      </trkpt>
      <trkpt lat="37.655870" lon="-119.705970">
        <ele>1815.583</ele>
        <time>2018-12-27T21:02:35Z</time>
      </trkpt>
      <trkpt lat="37.655870" lon="-119.705660">
        <ele>1816.082</ele>
        <time>2018-12-27T21:02:55Z</time>
      </trkpt>
      <trkpt lat="37.655850" lon="-119.705170">
        <ele>1817.948</ele>
        <time>2018-12-27T21:03:15Z</time>
      </trkpt>
      <trkpt lat="37.655840" lon="-119.704710">
        <ele>1822.161</ele>
        <time>2018-12-27T21:03:35Z</time>
      </trkpt>
      <trkpt lat="37.655830" lon="-119.704560">
        <ele>1823.517</ele>
        <time>2018-12-27T21:03:55Z</time>
      </trkpt>
      <trkpt lat="37.655830" lon="-119.704500">
        <ele>1823.808</ele>
        <time>2018-12-27T21:04:15Z</time>
      </trkpt>
      <trkpt lat="37.655830" lon="-119.704460">
        <ele>1823.937</ele>
        <time>2018-12-27T21:04:35Z</time>
      </trkpt>
      <trkpt lat="37.655820" lon="-119.704350">
        <ele>1824.245</ele>
        <time>2018-12-27T21:04:55Z</time>
      </trkpt>
      <trkpt lat="37.655810" lon="-119.704290">
        <ele>1824.350</ele>
        <time>2018-12-27T21:05:15Z</time>
      </trkpt>
      <trkpt lat="37.655800" lon="-119.704230">
        <ele>1824.410</ele>
        <time>2018-12-27T21:05:35Z</time>
      </trkpt>
      <trkpt lat="37.655790" lon="-119.704180">
        <ele>1824.524</ele>
        <time>2018-12-27T21:05:55Z</time>
      </trkpt>
      <trkpt lat="37.655780" lon="-119.704110">
        <ele>1824.884</ele>
        <time>2018-12-27T21:06:15Z</time>
      </trkpt>
      <trkpt lat="37.655760" lon="-119.704070">
        <ele>1824.710</ele>
        <time>2018-12-27T21:06:35Z</time>
      </trkpt>
      <trkpt lat="37.655740" lon="-119.704010">
        <ele>1824.959</ele>
        <time>2018-12-27T21:06:55Z</time>
      </trkpt>
      <trkpt lat="37.655720" lon="-119.703950">
        <ele>1825.548</ele>
        <time>2018-12-27T21:07:15Z</time>
      </trkpt>
      <trkpt lat="37.655690" lon="-119.703910">
        <ele>1825.861</ele>
        <time>2018-12-27T21:07:35Z</time>
      </trkpt>
      <trkpt lat="37.655670" lon="-119.703860">
        <ele>1826.317</ele>
        <time>2018-12-27T21:07:55Z</time>
      </trkpt>
      <trkpt lat="37.655650" lon="-119.703830">
        <ele>1826.608</ele>
        <time>2018-12-27T21:08:15Z</time>
      </trkpt>
      <trkpt lat="37.655630" lon="-119.703790">
        <ele>1827.037</ele>
        <time>2018-12-27T21:08:35Z</time>
      </trkpt>
      <trkpt lat="37.655610" lon="-119.703760">
        <ele>1827.315</ele>
        <time>2018-12-27T21:08:55Z</time>
      </trkpt>
      <trkpt lat="37.655590" lon="-119.703730">
        <ele>1827.820</ele>
        <time>2018-12-27T21:09:15Z</time>
      </trkpt>
      <trkpt lat="37.655540" lon="-119.703660">
        <ele>1829.160</ele>
        <time>2018-12-27T21:09:35Z</time>
      </trkpt>
      <trkpt lat="37.655510" lon="-119.703630">
        <ele>1829.424</ele>
        <time>2018-12-27T21:09:55Z</time>
      </trkpt>
      <trkpt lat="37.655450" lon="-119.703560">
        <ele>1830.074</ele>
        <time>2018-12-27T21:10:15Z</time>
      </trkpt>
      <trkpt lat="37.655410" lon="-119.703520">
        <ele>1830.120</ele>
        <time>2018-12-27T21:10:35Z</time>
      </trkpt>
      <trkpt lat="37.655340" lon="-119.703460">
        <ele>1830.639</ele>
        <time>2018-12-27T21:10:55Z</time>
      </trkpt>
      <trkpt lat="37.655310" lon="-119.703430">
        <ele>1831.344</ele>
        <time>2018-12-27T21:11:15Z</time>
      </trkpt>
      <trkpt lat="37.655280" lon="-119.703400">
        <ele>1831.805</ele>
        <time>2018-12-27T21:11:35Z</time>
      </trkpt>
      <trkpt lat="37.655120" lon="-119.703270">
        <ele>1832.015</ele>
        <time>2018-12-27T21:11:55Z</time>
      </trkpt>
      <trkpt lat="37.654820" lon="-119.703020">
        <ele>1832.108</ele>
        <time>2018-12-27T21:12:15Z</time>
      </trkpt>
      <trkpt lat="37.654730" lon="-119.702940">
        <ele>1832.177</ele>
        <time>2018-12-27T21:12:35Z</time>
      </trkpt>
      <trkpt lat="37.654570" lon="-119.702810">
        <ele>1832.755</ele>
        <time>2018-12-27T21:12:55Z</time>
      </trkpt>
      <trkpt lat="37.654460" lon="-119.702730">
        <ele>1835.730</ele>
        <time>2018-12-27T21:13:15Z</time>
      </trkpt>
      <trkpt lat="37.654430" lon="-119.702700">
        <ele>1836.640</ele>
        <time>2018-12-27T21:13:35Z</time>
      </trkpt>
      <trkpt lat="37.654290" lon="-119.702610">
        <ele>1838.644</ele>
        <time>2018-12-27T21:13:55Z</time>
      </trkpt>
      <trkpt lat="37.654250" lon="-119.702580">
        <ele>1839.414</ele>
        <time>2018-12-27T21:14:15Z</time>
      </trkpt>
      <trkpt lat="37.654230" lon="-119.702570">
        <ele>1839.610</ele>
        <time>2018-12-27T21:14:35Z</time>
      </trkpt>
      <trkpt lat="37.654170" lon="-119.702550">
        <ele>1840.299</ele>
        <time>2018-12-27T21:14:55Z</time>
      </trkpt>
      <trkpt lat="37.654130" lon="-119.702530">
        <ele>1840.772</ele>
        <time>2018-12-27T21:15:15Z</time>
      </trkpt>
      <trkpt lat="37.654100" lon="-119.702520">
        <ele>1841.013</ele>
        <time>2018-12-27T21:15:35Z</time>
      </trkpt>
      <trkpt lat="37.654070" lon="-119.702510">
        <ele>1841.214</ele>
        <time>2018-12-27T21:15:55Z</time>
      </trkpt>
      <trkpt lat="37.654010" lon="-119.702500">
        <ele>1841.608</ele>
        <time>2018-12-27T21:16:15Z</time>
      </trkpt>
      <trkpt lat="37.653950" lon="-119.702490">
        <ele>1842.010</ele>
        <time>2018-12-27T21:16:35Z</time>
      </trkpt>
      <trkpt lat="37.653860" lon="-119.702480">
        <ele>1842.578</ele>
        <time>2018-12-27T21:16:55Z</time>
      </trkpt>
      <trkpt lat="37.653770" lon="-119.702490">
        <ele>1842.563</ele>
        <time>2018-12-27T21:17:15Z</time>
      </trkpt>
      <trkpt lat="37.653670" lon="-119.702510">
        <ele>1842.663</ele>
        <time>2018-12-27T21:17:35Z</time>
      </trkpt>
      <trkpt lat="37.653610" lon="-119.702530">
        <ele>1842.557</ele>
        <time>2018-12-27T21:17:55Z</time>
      </trkpt>
      <trkpt lat="37.653560" lon="-119.702550">
        <ele>1842.377</ele>
        <time>2018-12-27T21:18:15Z</time>
      </trkpt>
      <trkpt lat="37.653500" lon="-119.702570">
        <ele>1842.213</ele>
        <time>2018-12-27T21:18:35Z</time>
      </trkpt>
      <trkpt lat="37.653420" lon="-119.702620">
        <ele>1841.882</ele>
        <time>2018-12-27T21:18:55Z</time>
      </trkpt>
      <trkpt lat="37.653270" lon="-119.702700">
        <ele>1841.763</ele>
        <time>2018-12-27T21:19:15Z</time>
      </trkpt>
      <trkpt lat="37.653240" lon="-119.702720">
        <ele>1841.744</ele>
        <time>2018-12-27T21:19:35Z</time>
      </trkpt>
      <trkpt lat="37.653230" lon="-119.702730">
        <ele>1841.718</ele>
        <time>2018-12-27T21:19:55Z</time>
      </trkpt>
      <trkpt lat="37.653190" lon="-119.702770">
        <ele>1841.508</ele>
        <time>2018-12-27T21:20:15Z</time>
      </trkpt>
      <trkpt lat="37.653160" lon="-119.702790">
        <ele>1841.689</ele>
        <time>2018-12-27T21:20:35Z</time>
      </trkpt>
      <trkpt lat="37.653090" lon="-119.702870">
        <ele>1841.217</ele>
        <time>2018-12-27T21:20:55Z</time>
      </trkpt>
      <trkpt lat="37.653010" lon="-119.702960">
        <ele>1840.832</ele>
        <time>2018-12-27T21:21:15Z</time>
      </trkpt>
      <trkpt lat="37.652950" lon="-119.703040">
        <ele>1840.622</ele>
        <time>2018-12-27T21:21:35Z</time>
      </trkpt>
      <trkpt lat="37.652870" lon="-119.703130">
        <ele>1840.526</ele>
        <time>2018-12-27T21:21:55Z</time>
      </trkpt>
      <trkpt lat="37.652830" lon="-119.703170">
        <ele>1840.586</ele>
        <time>2018-12-27T21:22:15Z</time>
      </trkpt>
      <trkpt lat="37.652800" lon="-119.703200">
        <ele>1840.592</ele>
        <time>2018-12-27T21:22:35Z</time>
      </trkpt>
      <trkpt lat="37.652780" lon="-119.703220">
        <ele>1840.591</ele>
        <time>2018-12-27T21:22:55Z</time>
      </trkpt>
      <trkpt lat="37.652750" lon="-119.703240">
        <ele>1840.667</ele>
        <time>2018-12-27T21:23:15Z</time>
      </trkpt>
      <trkpt lat="37.652710" lon="-119.703250">
        <ele>1840.981</ele>
        <time>2018-12-27T21:23:35Z</time>
      </trkpt>
      <trkpt lat="37.652680" lon="-119.703260">
        <ele>1841.119</ele>
        <time>2018-12-27T21:23:55Z</time>
      </trkpt>
      <trkpt lat="37.652660" lon="-119.703270">
        <ele>1841.208</ele>
        <time>2018-12-27T21:24:15Z</time>
      </trkpt>
      <trkpt lat="37.652620" lon="-119.703280">
        <ele>1841.599</ele>
        <time>2018-12-27T21:24:35Z</time>
      </trkpt>
      <trkpt lat="37.652600" lon="-119.703280">
        <ele>1841.747</ele>
        <time>2018-12-27T21:24:55Z</time>
      </trkpt>
      <trkpt lat="37.652550" lon="-119.703290">
        <ele>1842.132</ele>
        <time>2018-12-27T21:25:15Z</time>
      </trkpt>
      <trkpt lat="37.652510" lon="-119.703290">
        <ele>1842.572</ele>
        <time>2018-12-27T21:25:35Z</time>
      </trkpt>
      <trkpt lat="37.652490" lon="-119.703290">
        <ele>1842.776</ele>
        <time>2018-12-27T21:25:55Z</time>
      </trkpt>
      <trkpt lat="37.652430" lon="-119.703280">
        <ele>1843.456</ele>
        <time>2018-12-27T21:26:15Z</time>
      </trkpt>
      <trkpt lat="37.652370" lon="-119.703270">
        <ele>1844.172</ele>
        <time>2018-12-27T21:26:35Z</time>
      </trkpt>
      <trkpt lat="37.652250" lon="-119.703230">
        <ele>1844.711</ele>
        <time>2018-12-27T21:26:55Z</time>
      </trkpt>
      <trkpt lat="37.652170" lon="-119.703200">
        <ele>1845.196</ele>
        <time>2018-12-27T21:27:15Z</time>
      </trkpt>
      <trkpt lat="37.652110" lon="-119.703160">
        <ele>1845.831</ele>
        <time>2018-12-27T21:27:35Z</time>
      </trkpt>
      <trkpt lat="37.652020" lon="-119.703100">
        <ele>1846.024</ele>
        <time>2018-12-27T21:27:55Z</time>
      </trkpt>
      <trkpt lat="37.651960" lon="-119.703030">
        <ele>1846.108</ele>
        <time>2018-12-27T21:28:15Z</time>
      </trkpt>
      <trkpt lat="37.651910" lon="-119.702980">
        <ele>1846.092</ele>
        <time>2018-12-27T21:28:35Z</time>
      </trkpt>
      <trkpt lat="37.651860" lon="-119.702880">
        <ele>1846.470</ele>
        <time>2018-12-27T21:28:55Z</time>
      </trkpt>
      <trkpt lat="37.651820" lon="-119.702780">
        <ele>1846.875</ele>
        <time>2018-12-27T21:29:15Z</time>
      </trkpt>
      <trkpt lat="37.651800" lon="-119.702690">
        <ele>1847.365</ele>
        <time>2018-12-27T21:29:35Z</time>
      </trkpt>
      <trkpt lat="37.651790" lon="-119.702630">
        <ele>1847.679</ele>
        <time>2018-12-27T21:29:55Z</time>
      </trkpt>
      <trkpt lat="37.651780" lon="-119.702550">
        <ele>1847.969</ele>
        <time>2018-12-27T21:30:15Z</time>
      </trkpt>
      <trkpt lat="37.651780" lon="-119.702460">
        <ele>1848.615</ele>
        <time>2018-12-27T21:30:35Z</time>
      </trkpt>
      <trkpt lat="37.651780" lon="-119.702310">
        <ele>1849.614</ele>
        <time>2018-12-27T21:30:55Z</time>
      </trkpt>
      <trkpt lat="37.651790" lon="-119.702030">
        <ele>1851.079</ele>
        <time>2018-12-27T21:31:15Z</time>
      </trkpt>
      <trkpt lat="37.651790" lon="-119.701770">
        <ele>1851.505</ele>
        <time>2018-12-27T21:31:35Z</time>
      </trkpt>
      <trkpt lat="37.651800" lon="-119.701570">
        <ele>1852.125</ele>
        <time>2018-12-27T21:31:55Z</time>
      </trkpt>
      <trkpt lat="37.651810" lon="-119.701440">
        <ele>1852.608</ele>
        <time>2018-12-27T21:32:15Z</time>
      </trkpt>
      <trkpt lat="37.651810" lon="-119.701320">
        <ele>1852.610</ele>
        <time>2018-12-27T21:32:35Z</time>
      </trkpt>
      <trkpt lat="37.651810" lon="-119.701270">
        <ele>1852.638</ele>
        <time>2018-12-27T21:32:55Z</time>
      </trkpt>
      <trkpt lat="37.651800" lon="-119.701230">
        <ele>1852.213</ele>
        <time>2018-12-27T21:33:15Z</time>
      </trkpt>
      <trkpt lat="37.651800" lon="-119.701190">
        <ele>1852.233</ele>
        <time>2018-12-27T21:33:35Z</time>
      </trkpt>
      <trkpt lat="37.651770" lon="-119.701090">
        <ele>1851.587</ele>
        <time>2018-12-27T21:33:55Z</time>
      </trkpt>
      <trkpt lat="37.651750" lon="-119.701010">
        <ele>1851.067</ele>
        <time>2018-12-27T21:34:15Z</time>
      </trkpt>
      <trkpt lat="37.651710" lon="-119.700930">
        <ele>1850.213</ele>
        <time>2018-12-27T21:34:35Z</time>
      </trkpt>
      <trkpt lat="37.651660" lon="-119.700850">
        <ele>1849.322</ele>
        <time>2018-12-27T21:34:55Z</time>
      </trkpt>
      <trkpt lat="37.651620" lon="-119.700810">
        <ele>1848.548</ele>
        <time>2018-12-27T21:35:15Z</time>
      </trkpt>
      <trkpt lat="37.651570" lon="-119.700760">
        <ele>1847.661</ele>
        <time>2018-12-27T21:35:35Z</time>
      </trkpt>
      <trkpt lat="37.651540" lon="-119.700730">
        <ele>1847.217</ele>
        <time>2018-12-27T21:35:55Z</time>
      </trkpt>
      <trkpt lat="37.651510" lon="-119.700710">
        <ele>1847.208</ele>
        <time>2018-12-27T21:36:15Z</time>
      </trkpt>
      <trkpt lat="37.651460" lon="-119.700680">
        <ele>1848.027</ele>
        <time>2018-12-27T21:36:35Z</time>
      </trkpt>
      <trkpt lat="37.651420" lon="-119.700670">
        <ele>1848.795</ele>
        <time>2018-12-27T21:36:55Z</time>
      </trkpt>
      <trkpt lat="37.651370" lon="-119.700660">
        <ele>1849.450</ele>
        <time>2018-12-27T21:37:15Z</time>
      </trkpt>
      <trkpt lat="37.651310" lon="-119.700650">
        <ele>1850.310</ele>
        <time>2018-12-27T21:37:35Z</time>
      </trkpt>
      <trkpt lat="37.651250" lon="-119.700650">
        <ele>1850.914</ele>
        <time>2018-12-27T21:37:55Z</time>
      </trkpt>
      <trkpt lat="37.651210" lon="-119.700650">
        <ele>1851.694</ele>
        <time>2018-12-27T21:38:15Z</time>
      </trkpt>
      <trkpt lat="37.651160" lon="-119.700670">
        <ele>1851.740</ele>
        <time>2018-12-27T21:38:35Z</time>
      </trkpt>
      <trkpt lat="37.651110" lon="-119.700690">
        <ele>1851.789</ele>
        <time>2018-12-27T21:38:55Z</time>
      </trkpt>
      <trkpt lat="37.651060" lon="-119.700720">
        <ele>1851.715</ele>
        <time>2018-12-27T21:39:15Z</time>
      </trkpt>
      <trkpt lat="37.651010" lon="-119.700760">
        <ele>1851.665</ele>
        <time>2018-12-27T21:39:35Z</time>
      </trkpt>
      <trkpt lat="37.650940" lon="-119.700810">
        <ele>1852.211</ele>
        <time>2018-12-27T21:39:55Z</time>
      </trkpt>
      <trkpt lat="37.650900" lon="-119.700850">
        <ele>1852.508</ele>
        <time>2018-12-27T21:40:15Z</time>
      </trkpt>
      <trkpt lat="37.650840" lon="-119.700910">
        <ele>1852.234</ele>
        <time>2018-12-27T21:40:35Z</time>
      </trkpt>
      <trkpt lat="37.650780" lon="-119.700980">
        <ele>1851.192</ele>
        <time>2018-12-27T21:40:55Z</time>
      </trkpt>
      <trkpt lat="37.650650" lon="-119.701130">
        <ele>1851.387</ele>
        <time>2018-12-27T21:41:15Z</time>
      </trkpt>
      <trkpt lat="37.650530" lon="-119.701280">
        <ele>1850.377</ele>
        <time>2018-12-27T21:41:35Z</time>
      </trkpt>
      <trkpt lat="37.650340" lon="-119.701500">
        <ele>1850.641</ele>
        <time>2018-12-27T21:41:55Z</time>
      </trkpt>
      <trkpt lat="37.650180" lon="-119.701670">
        <ele>1850.451</ele>
        <time>2018-12-27T21:42:15Z</time>
      </trkpt>
      <trkpt lat="37.650130" lon="-119.701700">
        <ele>1850.847</ele>
        <time>2018-12-27T21:42:35Z</time>
      </trkpt>
      <trkpt lat="37.650040" lon="-119.701760">
        <ele>1851.496</ele>
        <time>2018-12-27T21:42:55Z</time>
      </trkpt>
      <trkpt lat="37.649970" lon="-119.701810">
        <ele>1851.151</ele>
        <time>2018-12-27T21:43:15Z</time>
      </trkpt>
      <trkpt lat="37.649800" lon="-119.701860">
        <ele>1853.101</ele>
        <time>2018-12-27T21:43:35Z</time>
      </trkpt>
      <trkpt lat="37.649580" lon="-119.701900">
        <ele>1856.911</ele>
        <time>2018-12-27T21:43:55Z</time>
      </trkpt>
      <trkpt lat="37.649490" lon="-119.701920">
        <ele>1859.408</ele>
        <time>2018-12-27T21:44:15Z</time>
      </trkpt>
      <trkpt lat="37.649390" lon="-119.701950">
        <ele>1861.748</ele>
        <time>2018-12-27T21:44:35Z</time>
      </trkpt>
      <trkpt lat="37.649240" lon="-119.702000">
        <ele>1864.136</ele>
        <time>2018-12-27T21:44:55Z</time>
      </trkpt>
      <trkpt lat="37.649120" lon="-119.702060">
        <ele>1864.121</ele>
        <time>2018-12-27T21:45:15Z</time>
      </trkpt>
      <trkpt lat="37.648890" lon="-119.702190">
        <ele>1864.571</ele>
        <time>2018-12-27T21:45:35Z</time>
      </trkpt>
      <trkpt lat="37.648760" lon="-119.702260">
        <ele>1864.765</ele>
        <time>2018-12-27T21:45:55Z</time>
      </trkpt>
      <trkpt lat="37.648510" lon="-119.702400">
        <ele>1864.685</ele>
        <time>2018-12-27T21:46:15Z</time>
      </trkpt>
      <trkpt lat="37.648190" lon="-119.702580">
        <ele>1865.521</ele>
        <time>2018-12-27T21:46:35Z</time>
      </trkpt>
      <trkpt lat="37.647810" lon="-119.702790">
        <ele>1865.960</ele>
        <time>2018-12-27T21:46:55Z</time>
      </trkpt>
      <trkpt lat="37.647560" lon="-119.702920">
        <ele>1865.122</ele>
        <time>2018-12-27T21:47:15Z</time>
      </trkpt>
      <trkpt lat="37.647420" lon="-119.702990">
        <ele>1865.462</ele>
        <time>2018-12-27T21:47:35Z</time>
      </trkpt>
      <trkpt lat="37.647310" lon="-119.703020">
        <ele>1865.508</ele>
        <time>2018-12-27T21:47:55Z</time>
      </trkpt>
      <trkpt lat="37.647200" lon="-119.703030">
        <ele>1865.508</ele>
        <time>2018-12-27T21:48:15Z</time>
      </trkpt>
      <trkpt lat="37.647100" lon="-119.703020">
        <ele>1865.695</ele>
        <time>2018-12-27T21:48:35Z</time>
      </trkpt>
      <trkpt lat="37.647020" lon="-119.703000">
        <ele>1865.523</ele>
        <time>2018-12-27T21:48:55Z</time>
      </trkpt>
      <trkpt lat="37.646960" lon="-119.702980">
        <ele>1865.448</ele>
        <time>2018-12-27T21:49:15Z</time>
      </trkpt>
      <trkpt lat="37.646900" lon="-119.702960">
        <ele>1865.428</ele>
        <time>2018-12-27T21:49:35Z</time>
      </trkpt>
      <trkpt lat="37.646820" lon="-119.702910">
        <ele>1865.712</ele>
        <time>2018-12-27T21:49:55Z</time>
      </trkpt>
      <trkpt lat="37.646750" lon="-119.702870">
        <ele>1865.542</ele>
        <time>2018-12-27T21:50:15Z</time>
      </trkpt>
      <trkpt lat="37.646680" lon="-119.702800">
        <ele>1865.418</ele>
        <time>2018-12-27T21:50:35Z</time>
      </trkpt>
      <trkpt lat="37.646590" lon="-119.702710">
        <ele>1865.357</ele>
        <time>2018-12-27T21:50:55Z</time>
      </trkpt>
      <trkpt lat="37.646530" lon="-119.702620">
        <ele>1865.469</ele>
        <time>2018-12-27T21:51:15Z</time>
      </trkpt>
      <trkpt lat="37.646480" lon="-119.702520">
        <ele>1865.404</ele>
        <time>2018-12-27T21:51:35Z</time>
      </trkpt>
      <trkpt lat="37.646430" lon="-119.702390">
        <ele>1865.724</ele>
        <time>2018-12-27T21:51:55Z</time>
      </trkpt>
      <trkpt lat="37.646330" lon="-119.702140">
        <ele>1865.908</ele>
        <time>2018-12-27T21:52:15Z</time>
      </trkpt>
      <trkpt lat="37.646250" lon="-119.701960">
        <ele>1865.349</ele>
        <time>2018-12-27T21:52:35Z</time>
      </trkpt>
      <trkpt lat="37.646220" lon="-119.701850">
        <ele>1865.097</ele>
        <time>2018-12-27T21:52:55Z</time>
      </trkpt>
      <trkpt lat="37.646180" lon="-119.701730">
        <ele>1864.332</ele>
        <time>2018-12-27T21:53:15Z</time>
      </trkpt>
      <trkpt lat="37.646160" lon="-119.701680">
        <ele>1863.982</ele>
        <time>2018-12-27T21:53:35Z</time>
      </trkpt>
      <trkpt lat="37.646150" lon="-119.701620">
        <ele>1863.846</ele>
        <time>2018-12-27T21:53:55Z</time>
      </trkpt>
      <trkpt lat="37.646140" lon="-119.701560">
        <ele>1863.626</ele>
        <time>2018-12-27T21:54:15Z</time>
      </trkpt>
      <trkpt lat="37.646140" lon="-119.701480">
        <ele>1863.842</ele>
        <time>2018-12-27T21:54:35Z</time>
      </trkpt>
      <trkpt lat="37.646130" lon="-119.701380">
        <ele>1863.611</ele>
        <time>2018-12-27T21:54:55Z</time>
      </trkpt>
      <trkpt lat="37.646130" lon="-119.701250">
        <ele>1863.841</ele>
        <time>2018-12-27T21:55:15Z</time>
      </trkpt>
      <trkpt lat="37.646130" lon="-119.701080">
        <ele>1863.581</ele>
        <time>2018-12-27T21:55:35Z</time>
      </trkpt>
      <trkpt lat="37.646110" lon="-119.700900">
        <ele>1861.709</ele>
        <time>2018-12-27T21:55:55Z</time>
      </trkpt>
      <trkpt lat="37.646100" lon="-119.700830">
        <ele>1860.508</ele>
        <time>2018-12-27T21:56:15Z</time>
      </trkpt>
      <trkpt lat="37.646090" lon="-119.700770">
        <ele>1859.447</ele>
        <time>2018-12-27T21:56:35Z</time>
      </trkpt>
      <trkpt lat="37.646060" lon="-119.700660">
        <ele>1857.135</ele>
        <time>2018-12-27T21:56:55Z</time>
      </trkpt>
      <trkpt lat="37.646040" lon="-119.700560">
        <ele>1856.050</ele>
        <time>2018-12-27T21:57:15Z</time>
      </trkpt>
      <trkpt lat="37.645990" lon="-119.700470">
        <ele>1853.990</ele>
        <time>2018-12-27T21:57:35Z</time>
      </trkpt>
      <trkpt lat="37.645970" lon="-119.700410">
        <ele>1853.294</ele>
        <time>2018-12-27T21:57:55Z</time>
      </trkpt>
      <trkpt lat="37.645950" lon="-119.700370">
        <ele>1853.424</ele>
        <time>2018-12-27T21:58:15Z</time>
      </trkpt>
      <trkpt lat="37.645930" lon="-119.700340">
        <ele>1853.580</ele>
        <time>2018-12-27T21:58:35Z</time>
      </trkpt>
      <trkpt lat="37.645780" lon="-119.700130">
        <ele>1854.029</ele>
        <time>2018-12-27T21:58:55Z</time>
      </trkpt>
      <trkpt lat="37.645260" lon="-119.699500">
        <ele>1851.265</ele>
        <time>2018-12-27T21:59:15Z</time>
      </trkpt>
      <trkpt lat="37.645200" lon="-119.699420">
        <ele>1850.468</ele>
        <time>2018-12-27T21:59:35Z</time>
      </trkpt>
      <trkpt lat="37.645160" lon="-119.699350">
        <ele>1849.914</ele>
        <time>2018-12-27T21:59:55Z</time>
      </trkpt>
      <trkpt lat="37.645120" lon="-119.699290">
        <ele>1849.308</ele>
        <time>2018-12-27T22:00:15Z</time>
      </trkpt>
      <trkpt lat="37.645090" lon="-119.699230">
        <ele>1849.019</ele>
        <time>2018-12-27T22:00:35Z</time>
      </trkpt>
      <trkpt lat="37.645070" lon="-119.699180">
        <ele>1848.877</ele>
        <time>2018-12-27T22:00:55Z</time>
      </trkpt>
      <trkpt lat="37.644980" lon="-119.699000">
        <ele>1846.712</ele>
        <time>2018-12-27T22:01:15Z</time>
      </trkpt>
      <trkpt lat="37.644870" lon="-119.698820">
        <ele>1846.982</ele>
        <time>2018-12-27T22:01:35Z</time>
      </trkpt>
      <trkpt lat="37.644780" lon="-119.698680">
        <ele>1847.976</ele>
        <time>2018-12-27T22:01:55Z</time>
      </trkpt>
      <trkpt lat="37.644650" lon="-119.698540">
        <ele>1847.416</ele>
        <time>2018-12-27T22:02:15Z</time>
      </trkpt>
      <trkpt lat="37.644570" lon="-119.698470">
        <ele>1846.782</ele>
        <time>2018-12-27T22:02:35Z</time>
      </trkpt>
      <trkpt lat="37.644520" lon="-119.698430">
        <ele>1846.311</ele>
        <time>2018-12-27T22:02:55Z</time>
      </trkpt>
      <trkpt lat="37.644400" lon="-119.698340">
        <ele>1844.648</ele>
        <time>2018-12-27T22:03:15Z</time>
      </trkpt>
      <trkpt lat="37.644330" lon="-119.698290">
        <ele>1843.361</ele>
        <time>2018-12-27T22:03:35Z</time>
      </trkpt>
      <trkpt lat="37.644290" lon="-119.698250">
        <ele>1842.817</ele>
        <time>2018-12-27T22:03:55Z</time>
      </trkpt>
      <trkpt lat="37.644240" lon="-119.698200">
        <ele>1842.308</ele>
        <time>2018-12-27T22:04:15Z</time>
      </trkpt>
      <trkpt lat="37.644190" lon="-119.698130">
        <ele>1842.257</ele>
        <time>2018-12-27T22:04:35Z</time>
      </trkpt>
      <trkpt lat="37.644130" lon="-119.698030">
        <ele>1841.915</ele>
        <time>2018-12-27T22:04:55Z</time>
      </trkpt>
      <trkpt lat="37.644100" lon="-119.697950">
        <ele>1842.130</ele>
        <time>2018-12-27T22:05:15Z</time>
      </trkpt>
      <trkpt lat="37.644060" lon="-119.697860">
        <ele>1841.540</ele>
        <time>2018-12-27T22:05:35Z</time>
      </trkpt>
      <trkpt lat="37.644030" lon="-119.697790">
        <ele>1840.854</ele>
        <time>2018-12-27T22:05:55Z</time>
      </trkpt>
      <trkpt lat="37.644010" lon="-119.697750">
        <ele>1840.564</ele>
        <time>2018-12-27T22:06:15Z</time>
      </trkpt>
      <trkpt lat="37.643960" lon="-119.697600">
        <ele>1839.670</ele>
        <time>2018-12-27T22:06:35Z</time>
      </trkpt>
      <trkpt lat="37.643890" lon="-119.697380">
        <ele>1837.549</ele>
        <time>2018-12-27T22:06:55Z</time>
      </trkpt>
      <trkpt lat="37.643860" lon="-119.697320">
        <ele>1836.722</ele>
        <time>2018-12-27T22:07:15Z</time>
      </trkpt>
      <trkpt lat="37.643830" lon="-119.697270">
        <ele>1836.362</ele>
        <time>2018-12-27T22:07:35Z</time>
      </trkpt>
      <trkpt lat="37.643750" lon="-119.697150">
        <ele>1835.908</ele>
        <time>2018-12-27T22:07:55Z</time>
      </trkpt>
      <trkpt lat="37.643710" lon="-119.697110">
        <ele>1835.508</ele>
        <time>2018-12-27T22:08:15Z</time>
      </trkpt>
      <trkpt lat="37.643690" lon="-119.697080">
        <ele>1835.465</ele>
        <time>2018-12-27T22:08:35Z</time>
      </trkpt>
      <trkpt lat="37.643650" lon="-119.697050">
        <ele>1835.153</ele>
        <time>2018-12-27T22:08:55Z</time>
      </trkpt>
      <trkpt lat="37.643620" lon="-119.697030">
        <ele>1834.838</ele>
        <time>2018-12-27T22:09:15Z</time>
      </trkpt>
      <trkpt lat="37.643580" lon="-119.697000">
        <ele>1834.778</ele>
        <time>2018-12-27T22:09:35Z</time>
      </trkpt>
      <trkpt lat="37.643550" lon="-119.696980">
        <ele>1834.622</ele>
        <time>2018-12-27T22:09:55Z</time>
      </trkpt>
      <trkpt lat="37.643530" lon="-119.696970">
        <ele>1834.462</ele>
        <time>2018-12-27T22:10:15Z</time>
      </trkpt>
      <trkpt lat="37.643490" lon="-119.696950">
        <ele>1834.298</ele>
        <time>2018-12-27T22:10:35Z</time>
      </trkpt>
      <trkpt lat="37.643420" lon="-119.696930">
        <ele>1833.547</ele>
        <time>2018-12-27T22:10:55Z</time>
      </trkpt>
      <trkpt lat="37.643350" lon="-119.696920">
        <ele>1832.665</ele>
        <time>2018-12-27T22:11:15Z</time>
      </trkpt>
      <trkpt lat="37.643200" lon="-119.696900">
        <ele>1830.468</ele>
        <time>2018-12-27T22:11:35Z</time>
      </trkpt>
      <trkpt lat="37.643110" lon="-119.696880">
        <ele>1829.814</ele>
        <time>2018-12-27T22:11:55Z</time>
      </trkpt>
      <trkpt lat="37.642990" lon="-119.696850">
        <ele>1829.108</ele>
        <time>2018-12-27T22:12:15Z</time>
      </trkpt>
      <trkpt lat="37.642890" lon="-119.696810">
        <ele>1828.749</ele>
        <time>2018-12-27T22:12:35Z</time>
      </trkpt>
      <trkpt lat="37.642810" lon="-119.696760">
        <ele>1829.667</ele>
        <time>2018-12-27T22:12:55Z</time>
      </trkpt>
      <trkpt lat="37.642730" lon="-119.696720">
        <ele>1829.812</ele>
        <time>2018-12-27T22:13:15Z</time>
      </trkpt>
      <trkpt lat="37.642670" lon="-119.696690">
        <ele>1829.722</ele>
        <time>2018-12-27T22:13:35Z</time>
      </trkpt>
      <trkpt lat="37.642610" lon="-119.696660">
        <ele>1829.686</ele>
        <time>2018-12-27T22:13:55Z</time>
      </trkpt>
      <trkpt lat="37.642550" lon="-119.696640">
        <ele>1829.326</ele>
        <time>2018-12-27T22:14:15Z</time>
      </trkpt>
      <trkpt lat="37.642500" lon="-119.696620">
        <ele>1829.182</ele>
        <time>2018-12-27T22:14:35Z</time>
      </trkpt>
      <trkpt lat="37.642390" lon="-119.696600">
        <ele>1828.091</ele>
        <time>2018-12-27T22:14:55Z</time>
      </trkpt>
      <trkpt lat="37.642220" lon="-119.696570">
        <ele>1827.444</ele>
        <time>2018-12-27T22:15:15Z</time>
      </trkpt>
      <trkpt lat="37.642080" lon="-119.696560">
        <ele>1827.005</ele>
        <time>2018-12-27T22:15:35Z</time>
      </trkpt>
      <trkpt lat="37.641860" lon="-119.696540">
        <ele>1826.015</ele>
        <time>2018-12-27T22:15:55Z</time>
      </trkpt>
      <trkpt lat="37.641720" lon="-119.696520">
        <ele>1824.308</ele>
        <time>2018-12-27T22:16:15Z</time>
      </trkpt>
      <trkpt lat="37.641420" lon="-119.696490">
        <ele>1820.377</ele>
        <time>2018-12-27T22:16:35Z</time>
      </trkpt>
      <trkpt lat="37.641250" lon="-119.696470">
        <ele>1819.355</ele>
        <time>2018-12-27T22:16:55Z</time>
      </trkpt>
      <trkpt lat="37.641130" lon="-119.696450">
        <ele>1818.920</ele>
        <time>2018-12-27T22:17:15Z</time>
      </trkpt>
      <trkpt lat="37.640990" lon="-119.696420">
        <ele>1818.480</ele>
        <time>2018-12-27T22:17:35Z</time>
      </trkpt>
      <trkpt lat="37.640900" lon="-119.696400">
        <ele>1818.174</ele>
        <time>2018-12-27T22:17:55Z</time>
      </trkpt>
      <trkpt lat="37.640750" lon="-119.696360">
        <ele>1817.574</ele>
        <time>2018-12-27T22:18:15Z</time>
      </trkpt>
      <trkpt lat="37.640610" lon="-119.696310">
        <ele>1817.190</ele>
        <time>2018-12-27T22:18:35Z</time>
      </trkpt>
      <trkpt lat="37.640440" lon="-119.696250">
        <ele>1816.399</ele>
        <time>2018-12-27T22:18:55Z</time>
      </trkpt>
      <trkpt lat="37.640190" lon="-119.696130">
        <ele>1816.482</ele>
        <time>2018-12-27T22:19:15Z</time>
      </trkpt>
      <trkpt lat="37.640030" lon="-119.696040">
        <ele>1816.043</ele>
        <time>2018-12-27T22:19:35Z</time>
      </trkpt>
      <trkpt lat="37.639780" lon="-119.695890">
        <ele>1814.317</ele>
        <time>2018-12-27T22:19:55Z</time>
      </trkpt>
      <trkpt lat="37.639620" lon="-119.695770">
        <ele>1812.608</ele>
        <time>2018-12-27T22:20:15Z</time>
      </trkpt>
      <trkpt lat="37.639460" lon="-119.695650">
        <ele>1810.251</ele>
        <time>2018-12-27T22:20:35Z</time>
      </trkpt>
      <trkpt lat="37.639360" lon="-119.695540">
        <ele>1808.959</ele>
        <time>2018-12-27T22:20:55Z</time>
      </trkpt>
      <trkpt lat="37.639250" lon="-119.695420">
        <ele>1807.774</ele>
        <time>2018-12-27T22:21:15Z</time>
      </trkpt>
      <trkpt lat="37.639160" lon="-119.695270">
        <ele>1807.154</ele>
        <time>2018-12-27T22:21:35Z</time>
      </trkpt>
      <trkpt lat="37.639090" lon="-119.695140">
        <ele>1806.278</ele>
        <time>2018-12-27T22:21:55Z</time>
      </trkpt>
      <trkpt lat="37.639050" lon="-119.695040">
        <ele>1805.518</ele>
        <time>2018-12-27T22:22:15Z</time>
      </trkpt>
      <trkpt lat="37.639020" lon="-119.694970">
        <ele>1805.054</ele>
        <time>2018-12-27T22:22:35Z</time>
      </trkpt>
      <trkpt lat="37.638970" lon="-119.694850">
        <ele>1804.393</ele>
        <time>2018-12-27T22:22:55Z</time>
      </trkpt>
      <trkpt lat="37.638940" lon="-119.694750">
        <ele>1803.162</ele>
        <time>2018-12-27T22:23:15Z</time>
      </trkpt>
      <trkpt lat="37.638920" lon="-119.694650">
        <ele>1802.483</ele>
        <time>2018-12-27T22:23:35Z</time>
      </trkpt>
      <trkpt lat="37.638890" lon="-119.694430">
        <ele>1800.911</ele>
        <time>2018-12-27T22:23:55Z</time>
      </trkpt>
      <trkpt lat="37.638870" lon="-119.694230">
        <ele>1799.808</ele>
        <time>2018-12-27T22:24:15Z</time>
      </trkpt>
      <trkpt lat="37.638850" lon="-119.693970">
        <ele>1798.539</ele>
        <time>2018-12-27T22:24:35Z</time>
      </trkpt>
      <trkpt lat="37.638800" lon="-119.693440">
        <ele>1793.247</ele>
        <time>2018-12-27T22:24:55Z</time>
      </trkpt>
      <trkpt lat="37.638790" lon="-119.693210">
        <ele>1791.392</ele>
        <time>2018-12-27T22:25:15Z</time>
      </trkpt>
      <trkpt lat="37.638800" lon="-119.693080">
        <ele>1790.462</ele>
        <time>2018-12-27T22:25:35Z</time>
      </trkpt>
      <trkpt lat="37.638820" lon="-119.692910">
        <ele>1789.296</ele>
        <time>2018-12-27T22:25:55Z</time>
      </trkpt>
      <trkpt lat="37.638870" lon="-119.692760">
        <ele>1788.576</ele>
        <time>2018-12-27T22:26:15Z</time>
      </trkpt>
      <trkpt lat="37.638900" lon="-119.692700">
        <ele>1788.392</ele>
        <time>2018-12-27T22:26:35Z</time>
      </trkpt>
      <trkpt lat="37.638970" lon="-119.692560">
        <ele>1787.651</ele>
        <time>2018-12-27T22:26:55Z</time>
      </trkpt>
      <trkpt lat="37.639090" lon="-119.692430">
        <ele>1787.613</ele>
        <time>2018-12-27T22:27:15Z</time>
      </trkpt>
      <trkpt lat="37.639190" lon="-119.692320">
        <ele>1788.143</ele>
        <time>2018-12-27T22:27:35Z</time>
      </trkpt>
      <trkpt lat="37.639280" lon="-119.692200">
        <ele>1788.707</ele>
        <time>2018-12-27T22:27:55Z</time>
      </trkpt>
      <trkpt lat="37.639330" lon="-119.692120">
        <ele>1789.408</ele>
        <time>2018-12-27T22:28:15Z</time>
      </trkpt>
      <trkpt lat="37.639370" lon="-119.692020">
        <ele>1789.674</ele>
        <time>2018-12-27T22:28:35Z</time>
      </trkpt>
      <trkpt lat="37.639400" lon="-119.691940">
        <ele>1789.522</ele>
        <time>2018-12-27T22:28:55Z</time>
      </trkpt>
      <trkpt lat="37.639420" lon="-119.691840">
        <ele>1788.857</ele>
        <time>2018-12-27T22:29:15Z</time>
      </trkpt>
      <trkpt lat="37.639430" lon="-119.691760">
        <ele>1787.857</ele>
        <time>2018-12-27T22:29:35Z</time>
      </trkpt>
      <trkpt lat="37.639430" lon="-119.691620">
        <ele>1785.291</ele>
        <time>2018-12-27T22:29:55Z</time>
      </trkpt>
      <trkpt lat="37.639420" lon="-119.691500">
        <ele>1782.791</ele>
        <time>2018-12-27T22:30:15Z</time>
      </trkpt>
      <trkpt lat="37.639420" lon="-119.691380">
        <ele>1780.257</ele>
        <time>2018-12-27T22:30:35Z</time>
      </trkpt>
      <trkpt lat="37.639430" lon="-119.691330">
        <ele>1779.386</ele>
        <time>2018-12-27T22:30:55Z</time>
      </trkpt>
      <trkpt lat="37.639450" lon="-119.691190">
        <ele>1777.366</ele>
        <time>2018-12-27T22:31:15Z</time>
      </trkpt>
      <trkpt lat="37.639490" lon="-119.691070">
        <ele>1776.829</ele>
        <time>2018-12-27T22:31:35Z</time>
      </trkpt>
      <trkpt lat="37.639530" lon="-119.690990">
        <ele>1776.821</ele>
        <time>2018-12-27T22:31:55Z</time>
      </trkpt>
      <trkpt lat="37.639570" lon="-119.690900">
        <ele>1776.608</ele>
        <time>2018-12-27T22:32:15Z</time>
      </trkpt>
      <trkpt lat="37.639650" lon="-119.690770">
        <ele>1777.269</ele>
        <time>2018-12-27T22:32:35Z</time>
      </trkpt>
      <trkpt lat="37.639910" lon="-119.690260">
        <ele>1776.997</ele>
        <time>2018-12-27T22:32:55Z</time>
      </trkpt>
      <trkpt lat="37.640280" lon="-119.689520">
        <ele>1775.232</ele>
        <time>2018-12-27T22:33:15Z</time>
      </trkpt>
      <trkpt lat="37.640420" lon="-119.689120">
        <ele>1769.772</ele>
        <time>2018-12-27T22:33:35Z</time>
      </trkpt>
      <trkpt lat="37.640480" lon="-119.688900">
        <ele>1768.156</ele>
        <time>2018-12-27T22:33:55Z</time>
      </trkpt>
      <trkpt lat="37.640580" lon="-119.688450">
        <ele>1764.136</ele>
        <time>2018-12-27T22:34:15Z</time>
      </trkpt>
      <trkpt lat="37.640620" lon="-119.688290">
        <ele>1762.712</ele>
        <time>2018-12-27T22:34:35Z</time>
      </trkpt>
      <trkpt lat="37.640670" lon="-119.688130">
        <ele>1761.511</ele>
        <time>2018-12-27T22:34:55Z</time>
      </trkpt>
      <trkpt lat="37.640730" lon="-119.688000">
        <ele>1760.978</ele>
        <time>2018-12-27T22:35:15Z</time>
      </trkpt>
      <trkpt lat="37.640790" lon="-119.687880">
        <ele>1760.333</ele>
        <time>2018-12-27T22:35:35Z</time>
      </trkpt>
      <trkpt lat="37.640880" lon="-119.687760">
        <ele>1760.526</ele>
        <time>2018-12-27T22:35:55Z</time>
      </trkpt>
      <trkpt lat="37.640960" lon="-119.687660">
        <ele>1760.908</ele>
        <time>2018-12-27T22:36:15Z</time>
      </trkpt>
      <trkpt lat="37.641570" lon="-119.686930">
        <ele>1761.130</ele>
        <time>2018-12-27T22:36:35Z</time>
      </trkpt>
      <trkpt lat="37.641710" lon="-119.686730">
        <ele>1760.668</ele>
        <time>2018-12-27T22:36:55Z</time>
      </trkpt>
      <trkpt lat="37.641810" lon="-119.686600">
        <ele>1761.363</ele>
        <time>2018-12-27T22:37:15Z</time>
      </trkpt>
      <trkpt lat="37.641870" lon="-119.686500">
        <ele>1761.623</ele>
        <time>2018-12-27T22:37:35Z</time>
      </trkpt>
      <trkpt lat="37.641920" lon="-119.686380">
        <ele>1760.927</ele>
        <time>2018-12-27T22:37:55Z</time>
      </trkpt>
      <trkpt lat="37.641950" lon="-119.686270">
        <ele>1759.877</ele>
        <time>2018-12-27T22:38:15Z</time>
      </trkpt>
      <trkpt lat="37.641960" lon="-119.686190">
        <ele>1758.773</ele>
        <time>2018-12-27T22:38:35Z</time>
      </trkpt>
      <trkpt lat="37.641960" lon="-119.686110">
        <ele>1757.362</ele>
        <time>2018-12-27T22:38:55Z</time>
      </trkpt>
      <trkpt lat="37.641960" lon="-119.686020">
        <ele>1755.858</ele>
        <time>2018-12-27T22:39:15Z</time>
      </trkpt>
      <trkpt lat="37.641950" lon="-119.685960">
        <ele>1754.652</ele>
        <time>2018-12-27T22:39:35Z</time>
      </trkpt>
      <trkpt lat="37.641920" lon="-119.685900">
        <ele>1753.917</ele>
        <time>2018-12-27T22:39:55Z</time>
      </trkpt>
      <trkpt lat="37.641910" lon="-119.685860">
        <ele>1753.808</ele>
        <time>2018-12-27T22:40:15Z</time>
      </trkpt>
      <trkpt lat="37.641880" lon="-119.685790">
        <ele>1753.738</ele>
        <time>2018-12-27T22:40:35Z</time>
      </trkpt>
      <trkpt lat="37.641820" lon="-119.685690">
        <ele>1754.296</ele>
        <time>2018-12-27T22:40:55Z</time>
      </trkpt>
      <trkpt lat="37.641760" lon="-119.685620">
        <ele>1755.591</ele>
        <time>2018-12-27T22:41:15Z</time>
      </trkpt>
      <trkpt lat="37.641680" lon="-119.685550">
        <ele>1756.861</ele>
        <time>2018-12-27T22:41:35Z</time>
      </trkpt>
      <trkpt lat="37.641580" lon="-119.685500">
        <ele>1757.765</ele>
        <time>2018-12-27T22:41:55Z</time>
      </trkpt>
      <trkpt lat="37.641470" lon="-119.685470">
        <ele>1758.085</ele>
        <time>2018-12-27T22:42:15Z</time>
      </trkpt>
      <trkpt lat="37.641390" lon="-119.685450">
        <ele>1758.161</ele>
        <time>2018-12-27T22:42:35Z</time>
      </trkpt>
      <trkpt lat="37.641300" lon="-119.685450">
        <ele>1757.710</ele>
        <time>2018-12-27T22:42:55Z</time>
      </trkpt>
      <trkpt lat="37.641210" lon="-119.685450">
        <ele>1757.389</ele>
        <time>2018-12-27T22:43:15Z</time>
      </trkpt>
      <trkpt lat="37.641010" lon="-119.685460">
        <ele>1756.206</ele>
        <time>2018-12-27T22:43:35Z</time>
      </trkpt>
      <trkpt lat="37.640830" lon="-119.685470">
        <ele>1755.226</ele>
        <time>2018-12-27T22:43:55Z</time>
      </trkpt>
      <trkpt lat="37.640660" lon="-119.685470">
        <ele>1754.308</ele>
        <time>2018-12-27T22:44:15Z</time>
      </trkpt>
      <trkpt lat="37.640470" lon="-119.685470">
        <ele>1753.031</ele>
        <time>2018-12-27T22:44:35Z</time>
      </trkpt>
      <trkpt lat="37.640350" lon="-119.685450">
        <ele>1752.269</ele>
        <time>2018-12-27T22:44:55Z</time>
      </trkpt>
      <trkpt lat="37.640240" lon="-119.685420">
        <ele>1751.424</ele>
        <time>2018-12-27T22:45:15Z</time>
      </trkpt>
      <trkpt lat="37.640110" lon="-119.685360">
        <ele>1750.454</ele>
        <time>2018-12-27T22:45:35Z</time>
      </trkpt>
      <trkpt lat="37.639970" lon="-119.685270">
        <ele>1748.258</ele>
        <time>2018-12-27T22:45:55Z</time>
      </trkpt>
      <trkpt lat="37.639850" lon="-119.685170">
        <ele>1745.398</ele>
        <time>2018-12-27T22:46:15Z</time>
      </trkpt>
      <trkpt lat="37.639780" lon="-119.685110">
        <ele>1744.664</ele>
        <time>2018-12-27T22:46:35Z</time>
      </trkpt>
      <trkpt lat="37.639630" lon="-119.684980">
        <ele>1744.253</ele>
        <time>2018-12-27T22:46:55Z</time>
      </trkpt>
      <trkpt lat="37.639520" lon="-119.684890">
        <ele>1744.341</ele>
        <time>2018-12-27T22:47:15Z</time>
      </trkpt>
      <trkpt lat="37.639430" lon="-119.684810">
        <ele>1745.281</ele>
        <time>2018-12-27T22:47:35Z</time>
      </trkpt>
      <trkpt lat="37.639320" lon="-119.684760">
        <ele>1745.209</ele>
        <time>2018-12-27T22:47:55Z</time>
      </trkpt>
      <trkpt lat="37.639180" lon="-119.684700">
        <ele>1744.408</ele>
        <time>2018-12-27T22:48:15Z</time>
      </trkpt>
      <trkpt lat="37.639020" lon="-119.684670">
        <ele>1742.467</ele>
        <time>2018-12-27T22:48:35Z</time>
      </trkpt>
      <trkpt lat="37.638830" lon="-119.684650">
        <ele>1742.925</ele>
        <time>2018-12-27T22:48:55Z</time>
      </trkpt>
      <trkpt lat="37.638590" lon="-119.684670">
        <ele>1743.020</ele>
        <time>2018-12-27T22:49:15Z</time>
      </trkpt>
      <trkpt lat="37.638370" lon="-119.684720">
        <ele>1742.440</ele>
        <time>2018-12-27T22:49:35Z</time>
      </trkpt>
      <trkpt lat="37.638200" lon="-119.684780">
        <ele>1741.324</ele>
        <time>2018-12-27T22:49:55Z</time>
      </trkpt>
      <trkpt lat="37.638090" lon="-119.684800">
        <ele>1740.754</ele>
        <time>2018-12-27T22:50:15Z</time>
      </trkpt>
      <trkpt lat="37.637930" lon="-119.684830">
        <ele>1739.760</ele>
        <time>2018-12-27T22:50:35Z</time>
      </trkpt>
      <trkpt lat="37.637830" lon="-119.684830">
        <ele>1739.369</ele>
        <time>2018-12-27T22:50:55Z</time>
      </trkpt>
      <trkpt lat="37.637630" lon="-119.684800">
        <ele>1739.025</ele>
        <time>2018-12-27T22:51:15Z</time>
      </trkpt>
      <trkpt lat="37.637480" lon="-119.684760">
        <ele>1737.426</ele>
        <time>2018-12-27T22:51:35Z</time>
      </trkpt>
      <trkpt lat="37.637370" lon="-119.684700">
        <ele>1736.508</ele>
        <time>2018-12-27T22:51:55Z</time>
      </trkpt>
      <trkpt lat="37.637160" lon="-119.684570">
        <ele>1733.208</ele>
        <time>2018-12-27T22:52:15Z</time>
      </trkpt>
      <trkpt lat="37.637030" lon="-119.684450">
        <ele>1732.665</ele>
        <time>2018-12-27T22:52:35Z</time>
      </trkpt>
      <trkpt lat="37.636900" lon="-119.684310">
        <ele>1731.583</ele>
        <time>2018-12-27T22:52:55Z</time>
      </trkpt>
      <trkpt lat="37.636780" lon="-119.684150">
        <ele>1729.828</ele>
        <time>2018-12-27T22:53:15Z</time>
      </trkpt>
      <trkpt lat="37.636670" lon="-119.683980">
        <ele>1728.618</ele>
        <time>2018-12-27T22:53:35Z</time>
      </trkpt>
      <trkpt lat="37.636590" lon="-119.683780">
        <ele>1727.422</ele>
        <time>2018-12-27T22:53:55Z</time>
      </trkpt>
      <trkpt lat="37.636520" lon="-119.683430">
        <ele>1723.172</ele>
        <time>2018-12-27T22:54:15Z</time>
      </trkpt>
      <trkpt lat="37.636480" lon="-119.683150">
        <ele>1724.458</ele>
        <time>2018-12-27T22:54:35Z</time>
      </trkpt>
      <trkpt lat="37.636440" lon="-119.683060">
        <ele>1725.067</ele>
        <time>2018-12-27T22:54:55Z</time>
      </trkpt>
      <trkpt lat="37.636390" lon="-119.682980">
        <ele>1724.721</ele>
        <time>2018-12-27T22:55:15Z</time>
      </trkpt>
      <trkpt lat="37.636270" lon="-119.682870">
        <ele>1722.341</ele>
        <time>2018-12-27T22:55:35Z</time>
      </trkpt>
      <trkpt lat="37.636180" lon="-119.682820">
        <ele>1721.305</ele>
        <time>2018-12-27T22:55:55Z</time>
      </trkpt>
      <trkpt lat="37.636080" lon="-119.682800">
        <ele>1719.408</ele>
        <time>2018-12-27T22:56:15Z</time>
      </trkpt>
      <trkpt lat="37.635960" lon="-119.682790">
        <ele>1716.845</ele>
        <time>2018-12-27T22:56:35Z</time>
      </trkpt>
      <trkpt lat="37.635850" lon="-119.682810">
        <ele>1716.693</ele>
        <time>2018-12-27T22:56:55Z</time>
      </trkpt>
      <trkpt lat="37.635800" lon="-119.682840">
        <ele>1716.278</ele>
        <time>2018-12-27T22:57:15Z</time>
      </trkpt>
      <trkpt lat="37.635740" lon="-119.682870">
        <ele>1715.838</ele>
        <time>2018-12-27T22:57:35Z</time>
      </trkpt>
      <trkpt lat="37.635660" lon="-119.682940">
        <ele>1715.332</ele>
        <time>2018-12-27T22:57:55Z</time>
      </trkpt>
      <trkpt lat="37.635570" lon="-119.683040">
        <ele>1715.212</ele>
        <time>2018-12-27T22:58:15Z</time>
      </trkpt>
      <trkpt lat="37.635490" lon="-119.683150">
        <ele>1714.888</ele>
        <time>2018-12-27T22:58:35Z</time>
      </trkpt>
      <trkpt lat="37.635390" lon="-119.683300">
        <ele>1714.157</ele>
        <time>2018-12-27T22:58:55Z</time>
      </trkpt>
      <trkpt lat="37.635240" lon="-119.683540">
        <ele>1712.758</ele>
        <time>2018-12-27T22:59:15Z</time>
      </trkpt>
      <trkpt lat="37.634920" lon="-119.683990">
        <ele>1707.852</ele>
        <time>2018-12-27T22:59:35Z</time>
      </trkpt>
      <trkpt lat="37.634580" lon="-119.684380">
        <ele>1705.217</ele>
        <time>2018-12-27T22:59:55Z</time>
      </trkpt>
      <trkpt lat="37.634350" lon="-119.684600">
        <ele>1705.208</ele>
        <time>2018-12-27T23:00:15Z</time>
      </trkpt>
      <trkpt lat="37.634060" lon="-119.684870">
        <ele>1705.178</ele>
        <time>2018-12-27T23:00:35Z</time>
      </trkpt>
      <trkpt lat="37.633740" lon="-119.685180">
        <ele>1704.246</ele>
        <time>2018-12-27T23:00:55Z</time>
      </trkpt>
      <trkpt lat="37.633270" lon="-119.685550">
        <ele>1703.021</ele>
        <time>2018-12-27T23:01:15Z</time>
      </trkpt>
      <trkpt lat="37.633160" lon="-119.685620">
        <ele>1702.831</ele>
        <time>2018-12-27T23:01:35Z</time>
      </trkpt>
      <trkpt lat="37.632980" lon="-119.685690">
        <ele>1703.075</ele>
        <time>2018-12-27T23:01:55Z</time>
      </trkpt>
      <trkpt lat="37.632790" lon="-119.685730">
        <ele>1703.825</ele>
        <time>2018-12-27T23:02:15Z</time>
      </trkpt>
      <trkpt lat="37.632470" lon="-119.685850">
        <ele>1704.171</ele>
        <time>2018-12-27T23:02:35Z</time>
      </trkpt>
      <trkpt lat="37.632120" lon="-119.686070">
        <ele>1702.510</ele>
        <time>2018-12-27T23:02:55Z</time>
      </trkpt>
      <trkpt lat="37.631930" lon="-119.686180">
        <ele>1701.511</ele>
        <time>2018-12-27T23:03:15Z</time>
      </trkpt>
      <trkpt lat="37.631820" lon="-119.686220">
        <ele>1701.321</ele>
        <time>2018-12-27T23:03:35Z</time>
      </trkpt>
      <trkpt lat="37.631690" lon="-119.686240">
        <ele>1701.403</ele>
        <time>2018-12-27T23:03:55Z</time>
      </trkpt>
      <trkpt lat="37.631540" lon="-119.686270">
        <ele>1701.508</ele>
        <time>2018-12-27T23:04:15Z</time>
      </trkpt>
      <trkpt lat="37.631430" lon="-119.686280">
        <ele>1701.844</ele>
        <time>2018-12-27T23:04:35Z</time>
      </trkpt>
      <trkpt lat="37.631370" lon="-119.686290">
        <ele>1701.942</ele>
        <time>2018-12-27T23:04:55Z</time>
      </trkpt>
      <trkpt lat="37.631290" lon="-119.686310">
        <ele>1701.987</ele>
        <time>2018-12-27T23:05:15Z</time>
      </trkpt>
      <trkpt lat="37.631230" lon="-119.686340">
        <ele>1701.777</ele>
        <time>2018-12-27T23:05:35Z</time>
      </trkpt>
      <trkpt lat="37.631120" lon="-119.686430">
        <ele>1701.211</ele>
        <time>2018-12-27T23:05:55Z</time>
      </trkpt>
      <trkpt lat="37.631030" lon="-119.686510">
        <ele>1700.761</ele>
        <time>2018-12-27T23:06:15Z</time>
      </trkpt>
      <trkpt lat="37.630900" lon="-119.686680">
        <ele>1699.057</ele>
        <time>2018-12-27T23:06:35Z</time>
      </trkpt>
      <trkpt lat="37.630700" lon="-119.686850">
        <ele>1697.356</ele>
        <time>2018-12-27T23:06:55Z</time>
      </trkpt>
      <trkpt lat="37.630600" lon="-119.686920">
        <ele>1696.334</ele>
        <time>2018-12-27T23:07:15Z</time>
      </trkpt>
      <trkpt lat="37.630510" lon="-119.686980">
        <ele>1695.355</ele>
        <time>2018-12-27T23:07:35Z</time>
      </trkpt>
      <trkpt lat="37.630370" lon="-119.687000">
        <ele>1694.810</ele>
        <time>2018-12-27T23:07:55Z</time>
      </trkpt>
      <trkpt lat="37.630260" lon="-119.687010">
        <ele>1694.908</ele>
        <time>2018-12-27T23:08:15Z</time>
      </trkpt>
      <trkpt lat="37.630120" lon="-119.686990">
        <ele>1695.446</ele>
        <time>2018-12-27T23:08:35Z</time>
      </trkpt>
      <trkpt lat="37.629990" lon="-119.686950">
        <ele>1695.264</ele>
        <time>2018-12-27T23:08:55Z</time>
      </trkpt>
      <trkpt lat="37.629790" lon="-119.686820">
        <ele>1695.769</ele>
        <time>2018-12-27T23:09:15Z</time>
      </trkpt>
      <trkpt lat="37.629640" lon="-119.686760">
        <ele>1695.099</ele>
        <time>2018-12-27T23:09:35Z</time>
      </trkpt>
      <trkpt lat="37.629470" lon="-119.686730">
        <ele>1694.293</ele>
        <time>2018-12-27T23:09:55Z</time>
      </trkpt>
      <trkpt lat="37.629280" lon="-119.686750">
        <ele>1692.933</ele>
        <time>2018-12-27T23:10:15Z</time>
      </trkpt>
      <trkpt lat="37.629020" lon="-119.686820">
        <ele>1692.919</ele>
        <time>2018-12-27T23:10:35Z</time>
      </trkpt>
      <trkpt lat="37.628860" lon="-119.686880">
        <ele>1693.238</ele>
        <time>2018-12-27T23:10:55Z</time>
      </trkpt>
      <trkpt lat="37.628650" lon="-119.686960">
        <ele>1693.558</ele>
        <time>2018-12-27T23:11:15Z</time>
      </trkpt>
      <trkpt lat="37.628230" lon="-119.687170">
        <ele>1692.552</ele>
        <time>2018-12-27T23:11:35Z</time>
      </trkpt>
      <trkpt lat="37.627600" lon="-119.687500">
        <ele>1690.217</ele>
        <time>2018-12-27T23:11:55Z</time>
      </trkpt>
      <trkpt lat="37.627440" lon="-119.687570">
        <ele>1689.308</ele>
        <time>2018-12-27T23:12:15Z</time>
      </trkpt>
      <trkpt lat="37.627250" lon="-119.687580">
        <ele>1689.648</ele>
        <time>2018-12-27T23:12:35Z</time>
      </trkpt>
      <trkpt lat="37.627070" lon="-119.687560">
        <ele>1690.476</ele>
        <time>2018-12-27T23:12:55Z</time>
      </trkpt>
      <trkpt lat="37.626860" lon="-119.687490">
        <ele>1691.881</ele>
        <time>2018-12-27T23:13:15Z</time>
      </trkpt>
      <trkpt lat="37.626600" lon="-119.687370">
        <ele>1693.341</ele>
        <time>2018-12-27T23:13:35Z</time>
      </trkpt>
      <trkpt lat="37.626490" lon="-119.687300">
        <ele>1694.275</ele>
        <time>2018-12-27T23:13:55Z</time>
      </trkpt>
      <trkpt lat="37.626340" lon="-119.687230">
        <ele>1694.685</ele>
        <time>2018-12-27T23:14:15Z</time>
      </trkpt>
      <trkpt lat="37.626260" lon="-119.687210">
        <ele>1694.611</ele>
        <time>2018-12-27T23:14:35Z</time>
      </trkpt>
      <trkpt lat="37.626160" lon="-119.687200">
        <ele>1694.730</ele>
        <time>2018-12-27T23:14:55Z</time>
      </trkpt>
      <trkpt lat="37.626000" lon="-119.687200">
        <ele>1694.819</ele>
        <time>2018-12-27T23:15:15Z</time>
      </trkpt>
      <trkpt lat="37.625920" lon="-119.687230">
        <ele>1694.809</ele>
        <time>2018-12-27T23:15:35Z</time>
      </trkpt>
      <trkpt lat="37.625840" lon="-119.687260">
        <ele>1695.019</ele>
        <time>2018-12-27T23:15:55Z</time>
      </trkpt>
      <trkpt lat="37.625760" lon="-119.687320">
        <ele>1694.308</ele>
        <time>2018-12-27T23:16:15Z</time>
      </trkpt>
      <trkpt lat="37.625710" lon="-119.687370">
        <ele>1693.584</ele>
        <time>2018-12-27T23:16:35Z</time>
      </trkpt>
      <trkpt lat="37.625650" lon="-119.687450">
        <ele>1692.462</ele>
        <time>2018-12-27T23:16:55Z</time>
      </trkpt>
      <trkpt lat="37.625540" lon="-119.687610">
        <ele>1690.157</ele>
        <time>2018-12-27T23:17:15Z</time>
      </trkpt>
      <trkpt lat="37.625470" lon="-119.687720">
        <ele>1688.767</ele>
        <time>2018-12-27T23:17:35Z</time>
      </trkpt>
      <trkpt lat="37.625380" lon="-119.687910">
        <ele>1685.541</ele>
        <time>2018-12-27T23:17:55Z</time>
      </trkpt>
      <trkpt lat="37.625260" lon="-119.688070">
        <ele>1682.431</ele>
        <time>2018-12-27T23:18:15Z</time>
      </trkpt>
      <trkpt lat="37.625130" lon="-119.688200">
        <ele>1679.757</ele>
        <time>2018-12-27T23:18:35Z</time>
      </trkpt>
      <trkpt lat="37.624970" lon="-119.688320">
        <ele>1678.096</ele>
        <time>2018-12-27T23:18:55Z</time>
      </trkpt>
      <trkpt lat="37.624890" lon="-119.688370">
        <ele>1677.342</ele>
        <time>2018-12-27T23:19:15Z</time>
      </trkpt>
      <trkpt lat="37.624810" lon="-119.688410">
        <ele>1676.922</ele>
        <time>2018-12-27T23:19:35Z</time>
      </trkpt>
      <trkpt lat="37.624650" lon="-119.688460">
        <ele>1676.414</ele>
        <time>2018-12-27T23:19:55Z</time>
      </trkpt>
      <trkpt lat="37.624430" lon="-119.688490">
        <ele>1676.208</ele>
        <time>2018-12-27T23:20:15Z</time>
      </trkpt>
      <trkpt lat="37.624330" lon="-119.688470">
        <ele>1676.357</ele>
        <time>2018-12-27T23:20:35Z</time>
      </trkpt>
      <trkpt lat="37.624060" lon="-119.688430">
        <ele>1677.185</ele>
        <time>2018-12-27T23:20:55Z</time>
      </trkpt>
      <trkpt lat="37.623630" lon="-119.688300">
        <ele>1679.360</ele>
        <time>2018-12-27T23:21:15Z</time>
      </trkpt>
      <trkpt lat="37.623420" lon="-119.688240">
        <ele>1680.840</ele>
        <time>2018-12-27T23:21:35Z</time>
      </trkpt>
      <trkpt lat="37.623220" lon="-119.688240">
        <ele>1681.234</ele>
        <time>2018-12-27T23:21:55Z</time>
      </trkpt>
      <trkpt lat="37.622970" lon="-119.688300">
        <ele>1681.324</ele>
        <time>2018-12-27T23:22:15Z</time>
      </trkpt>
      <trkpt lat="37.622210" lon="-119.688530">
        <ele>1683.130</ele>
        <time>2018-12-27T23:22:35Z</time>
      </trkpt>
      <trkpt lat="37.622080" lon="-119.688580">
        <ele>1683.599</ele>
        <time>2018-12-27T23:22:55Z</time>
      </trkpt>
      <trkpt lat="37.621950" lon="-119.688660">
        <ele>1684.191</ele>
        <time>2018-12-27T23:23:15Z</time>
      </trkpt>
      <trkpt lat="37.621520" lon="-119.688930">
        <ele>1684.381</ele>
        <time>2018-12-27T23:23:35Z</time>
      </trkpt>
      <trkpt lat="37.620890" lon="-119.689450">
        <ele>1682.319</ele>
        <time>2018-12-27T23:23:55Z</time>
      </trkpt>
      <trkpt lat="37.620700" lon="-119.689590">
        <ele>1681.608</ele>
        <time>2018-12-27T23:24:15Z</time>
      </trkpt>
      <trkpt lat="37.620550" lon="-119.689690">
        <ele>1681.442</ele>
        <time>2018-12-27T23:24:35Z</time>
      </trkpt>
      <trkpt lat="37.620360" lon="-119.689810">
        <ele>1680.430</ele>
        <time>2018-12-27T23:24:55Z</time>
      </trkpt>
      <trkpt lat="37.620150" lon="-119.689880">
        <ele>1679.875</ele>
        <time>2018-12-27T23:25:15Z</time>
      </trkpt>
      <trkpt lat="37.620030" lon="-119.689900">
        <ele>1679.415</ele>
        <time>2018-12-27T23:25:35Z</time>
      </trkpt>
      <trkpt lat="37.619840" lon="-119.689910">
        <ele>1679.239</ele>
        <time>2018-12-27T23:25:55Z</time>
      </trkpt>
      <trkpt lat="37.619380" lon="-119.689880">
        <ele>1679.569</ele>
        <time>2018-12-27T23:26:15Z</time>
      </trkpt>
      <trkpt lat="37.619150" lon="-119.689870">
        <ele>1678.915</ele>
        <time>2018-12-27T23:26:35Z</time>
      </trkpt>
      <trkpt lat="37.618700" lon="-119.689780">
        <ele>1677.964</ele>
        <time>2018-12-27T23:26:55Z</time>
      </trkpt>
      <trkpt lat="37.618540" lon="-119.689730">
        <ele>1678.073</ele>
        <time>2018-12-27T23:27:15Z</time>
      </trkpt>
      <trkpt lat="37.618390" lon="-119.689680">
        <ele>1678.285</ele>
        <time>2018-12-27T23:27:35Z</time>
      </trkpt>
      <trkpt lat="37.617710" lon="-119.689360">
        <ele>1679.113</ele>
        <time>2018-12-27T23:27:55Z</time>
      </trkpt>
      <trkpt lat="37.617480" lon="-119.689280">
        <ele>1679.508</ele>
        <time>2018-12-27T23:28:15Z</time>
      </trkpt>
      <trkpt lat="37.617350" lon="-119.689250">
        <ele>1679.770</ele>
        <time>2018-12-27T23:28:35Z</time>
      </trkpt>
      <trkpt lat="37.616790" lon="-119.689170">
        <ele>1678.358</ele>
        <time>2018-12-27T23:28:55Z</time>
      </trkpt>
      <trkpt lat="37.616410" lon="-119.689090">
        <ele>1677.663</ele>
        <time>2018-12-27T23:29:15Z</time>
      </trkpt>
      <trkpt lat="37.616110" lon="-119.689050">
        <ele>1676.633</ele>
        <time>2018-12-27T23:29:35Z</time>
      </trkpt>
      <trkpt lat="37.615960" lon="-119.689010">
        <ele>1676.857</ele>
        <time>2018-12-27T23:29:55Z</time>
      </trkpt>
      <trkpt lat="37.615870" lon="-119.688990">
        <ele>1676.337</ele>
        <time>2018-12-27T23:30:15Z</time>
      </trkpt>
      <trkpt lat="37.615720" lon="-119.688920">
        <ele>1676.453</ele>
        <time>2018-12-27T23:30:35Z</time>
      </trkpt>
      <trkpt lat="37.615650" lon="-119.688850">
        <ele>1677.032</ele>
        <time>2018-12-27T23:30:55Z</time>
      </trkpt>
      <trkpt lat="37.615600" lon="-119.688770">
        <ele>1677.982</ele>
        <time>2018-12-27T23:31:15Z</time>
      </trkpt>
      <trkpt lat="37.615550" lon="-119.688670">
        <ele>1677.943</ele>
        <time>2018-12-27T23:31:35Z</time>
      </trkpt>
      <trkpt lat="37.615490" lon="-119.688510">
        <ele>1677.717</ele>
        <time>2018-12-27T23:31:55Z</time>
      </trkpt>
      <trkpt lat="37.615460" lon="-119.688310">
        <ele>1676.808</ele>
        <time>2018-12-27T23:32:15Z</time>
      </trkpt>
      <trkpt lat="37.615480" lon="-119.688120">
        <ele>1676.331</ele>
        <time>2018-12-27T23:32:35Z</time>
      </trkpt>
      <trkpt lat="37.615510" lon="-119.687940">
        <ele>1675.189</ele>
        <time>2018-12-27T23:32:55Z</time>
      </trkpt>
      <trkpt lat="37.615550" lon="-119.687790">
        <ele>1676.354</ele>
        <time>2018-12-27T23:33:15Z</time>
      </trkpt>
      <trkpt lat="37.615580" lon="-119.687600">
        <ele>1677.594</ele>
        <time>2018-12-27T23:33:35Z</time>
      </trkpt>
      <trkpt lat="37.615580" lon="-119.687440">
        <ele>1677.338</ele>
        <time>2018-12-27T23:33:55Z</time>
      </trkpt>
      <trkpt lat="37.615570" lon="-119.687330">
        <ele>1677.018</ele>
        <time>2018-12-27T23:34:15Z</time>
      </trkpt>
      <trkpt lat="37.615560" lon="-119.687240">
        <ele>1677.334</ele>
        <time>2018-12-27T23:34:35Z</time>
      </trkpt>
      <trkpt lat="37.615520" lon="-119.687160">
        <ele>1676.463</ele>
        <time>2018-12-27T23:34:55Z</time>
      </trkpt>
      <trkpt lat="37.615480" lon="-119.687070">
        <ele>1675.594</ele>
        <time>2018-12-27T23:35:15Z</time>
      </trkpt>
      <trkpt lat="37.615430" lon="-119.687010">
        <ele>1673.657</ele>
        <time>2018-12-27T23:35:35Z</time>
      </trkpt>
      <trkpt lat="37.615370" lon="-119.686950">
        <ele>1672.122</ele>
        <time>2018-12-27T23:35:55Z</time>
      </trkpt>
      <trkpt lat="37.615330" lon="-119.686910">
        <ele>1671.608</ele>
        <time>2018-12-27T23:36:15Z</time>
      </trkpt>
      <trkpt lat="37.615280" lon="-119.686880">
        <ele>1670.912</ele>
        <time>2018-12-27T23:36:35Z</time>
      </trkpt>
      <trkpt lat="37.615220" lon="-119.686840">
        <ele>1670.360</ele>
        <time>2018-12-27T23:36:55Z</time>
      </trkpt>
      <trkpt lat="37.615160" lon="-119.686830">
        <ele>1669.615</ele>
        <time>2018-12-27T23:37:15Z</time>
      </trkpt>
      <trkpt lat="37.615080" lon="-119.686820">
        <ele>1671.185</ele>
        <time>2018-12-27T23:37:35Z</time>
      </trkpt>
      <trkpt lat="37.614980" lon="-119.686820">
        <ele>1673.999</ele>
        <time>2018-12-27T23:37:55Z</time>
      </trkpt>
      <trkpt lat="37.614930" lon="-119.686830">
        <ele>1675.199</ele>
        <time>2018-12-27T23:38:15Z</time>
      </trkpt>
      <trkpt lat="37.614870" lon="-119.686840">
        <ele>1676.565</ele>
        <time>2018-12-27T23:38:35Z</time>
      </trkpt>
      <trkpt lat="37.614830" lon="-119.686850">
        <ele>1677.314</ele>
        <time>2018-12-27T23:38:55Z</time>
      </trkpt>
      <trkpt lat="37.614790" lon="-119.686880">
        <ele>1677.568</ele>
        <time>2018-12-27T23:39:15Z</time>
      </trkpt>
      <trkpt lat="37.614750" lon="-119.686920">
        <ele>1677.542</ele>
        <time>2018-12-27T23:39:35Z</time>
      </trkpt>
      <trkpt lat="37.614710" lon="-119.686970">
        <ele>1677.326</ele>
        <time>2018-12-27T23:39:55Z</time>
      </trkpt>
      <trkpt lat="37.614670" lon="-119.687020">
        <ele>1677.208</ele>
        <time>2018-12-27T23:40:15Z</time>
      </trkpt>
      <trkpt lat="37.614560" lon="-119.687200">
        <ele>1676.389</ele>
        <time>2018-12-27T23:40:35Z</time>
      </trkpt>
      <trkpt lat="37.614380" lon="-119.687540">
        <ele>1674.037</ele>
        <time>2018-12-27T23:40:55Z</time>
      </trkpt>
      <trkpt lat="37.614260" lon="-119.687740">
        <ele>1673.582</ele>
        <time>2018-12-27T23:41:15Z</time>
      </trkpt>
      <trkpt lat="37.614140" lon="-119.687880">
        <ele>1673.472</ele>
        <time>2018-12-27T23:41:35Z</time>
      </trkpt>
      <trkpt lat="37.614030" lon="-119.687970">
        <ele>1673.936</ele>
        <time>2018-12-27T23:41:55Z</time>
      </trkpt>
      <trkpt lat="37.613750" lon="-119.688140">
        <ele>1675.216</ele>
        <time>2018-12-27T23:42:15Z</time>
      </trkpt>
      <trkpt lat="37.613280" lon="-119.688380">
        <ele>1674.872</ele>
        <time>2018-12-27T23:42:35Z</time>
      </trkpt>
      <trkpt lat="37.613010" lon="-119.688470">
        <ele>1673.941</ele>
        <time>2018-12-27T23:42:55Z</time>
      </trkpt>
      <trkpt lat="37.612920" lon="-119.688470">
        <ele>1674.156</ele>
        <time>2018-12-27T23:43:15Z</time>
      </trkpt>
      <trkpt lat="37.612800" lon="-119.688470">
        <ele>1673.259</ele>
        <time>2018-12-27T23:43:35Z</time>
      </trkpt>
      <trkpt lat="37.612690" lon="-119.688430">
        <ele>1673.114</ele>
        <time>2018-12-27T23:43:55Z</time>
      </trkpt>
      <trkpt lat="37.612600" lon="-119.688390">
        <ele>1672.808</ele>
        <time>2018-12-27T23:44:15Z</time>
      </trkpt>
      <trkpt lat="37.612390" lon="-119.688230">
        <ele>1673.218</ele>
        <time>2018-12-27T23:44:35Z</time>
      </trkpt>
      <trkpt lat="37.612120" lon="-119.688000">
        <ele>1673.376</ele>
        <time>2018-12-27T23:44:55Z</time>
      </trkpt>
      <trkpt lat="37.611790" lon="-119.687730">
        <ele>1672.481</ele>
        <time>2018-12-27T23:45:15Z</time>
      </trkpt>
      <trkpt lat="37.611680" lon="-119.687620">
        <ele>1672.311</ele>
        <time>2018-12-27T23:45:35Z</time>
      </trkpt>
      <trkpt lat="37.611630" lon="-119.687560">
        <ele>1672.615</ele>
        <time>2018-12-27T23:45:55Z</time>
      </trkpt>
      <trkpt lat="37.611580" lon="-119.687480">
        <ele>1673.635</ele>
        <time>2018-12-27T23:46:15Z</time>
      </trkpt>
      <trkpt lat="37.611530" lon="-119.687410">
        <ele>1674.441</ele>
        <time>2018-12-27T23:46:35Z</time>
      </trkpt>
      <trkpt lat="37.611490" lon="-119.687340">
        <ele>1675.230</ele>
        <time>2018-12-27T23:46:55Z</time>
      </trkpt>
      <trkpt lat="37.611460" lon="-119.687250">
        <ele>1675.463</ele>
        <time>2018-12-27T23:47:15Z</time>
      </trkpt>
      <trkpt lat="37.611440" lon="-119.687150">
        <ele>1676.044</ele>
        <time>2018-12-27T23:47:35Z</time>
      </trkpt>
      <trkpt lat="37.611420" lon="-119.687030">
        <ele>1676.418</ele>
        <time>2018-12-27T23:47:55Z</time>
      </trkpt>
      <trkpt lat="37.611410" lon="-119.686800">
        <ele>1676.708</ele>
        <time>2018-12-27T23:48:15Z</time>
      </trkpt>
      <trkpt lat="37.611390" lon="-119.686540">
        <ele>1674.859</ele>
        <time>2018-12-27T23:48:35Z</time>
      </trkpt>
      <trkpt lat="37.611370" lon="-119.686430">
        <ele>1674.237</ele>
        <time>2018-12-27T23:48:55Z</time>
      </trkpt>
      <trkpt lat="37.611350" lon="-119.686350">
        <ele>1673.752</ele>
        <time>2018-12-27T23:49:15Z</time>
      </trkpt>
      <trkpt lat="37.611320" lon="-119.686270">
        <ele>1672.832</ele>
        <time>2018-12-27T23:49:35Z</time>
      </trkpt>
      <trkpt lat="37.611270" lon="-119.686150">
        <ele>1673.196</ele>
        <time>2018-12-27T23:49:55Z</time>
      </trkpt>
      <trkpt lat="37.611220" lon="-119.686080">
        <ele>1672.936</ele>
        <time>2018-12-27T23:50:15Z</time>
      </trkpt>
      <trkpt lat="37.611050" lon="-119.685860">
        <ele>1673.092</ele>
        <time>2018-12-27T23:50:35Z</time>
      </trkpt>
      <trkpt lat="37.610340" lon="-119.685190">
        <ele>1664.821</ele>
        <time>2018-12-27T23:50:55Z</time>
      </trkpt>
      <trkpt lat="37.610070" lon="-119.684950">
        <ele>1662.885</ele>
        <time>2018-12-27T23:51:15Z</time>
      </trkpt>
      <trkpt lat="37.609940" lon="-119.684790">
        <ele>1663.089</ele>
        <time>2018-12-27T23:51:35Z</time>
      </trkpt>
      <trkpt lat="37.609840" lon="-119.684630">
        <ele>1663.017</ele>
        <time>2018-12-27T23:51:55Z</time>
      </trkpt>
      <trkpt lat="37.609670" lon="-119.684230">
        <ele>1663.808</ele>
        <time>2018-12-27T23:52:15Z</time>
      </trkpt>
      <trkpt lat="37.609540" lon="-119.684000">
        <ele>1662.441</ele>
        <time>2018-12-27T23:52:35Z</time>
      </trkpt>
      <trkpt lat="37.609510" lon="-119.683940">
        <ele>1662.939</ele>
        <time>2018-12-27T23:52:55Z</time>
      </trkpt>
      <trkpt lat="37.609430" lon="-119.683830">
        <ele>1664.194</ele>
        <time>2018-12-27T23:53:15Z</time>
      </trkpt>
      <trkpt lat="37.609340" lon="-119.683750">
        <ele>1665.334</ele>
        <time>2018-12-27T23:53:35Z</time>
      </trkpt>
      <trkpt lat="37.609240" lon="-119.683690">
        <ele>1666.668</ele>
        <time>2018-12-27T23:53:55Z</time>
      </trkpt>
      <trkpt lat="37.609120" lon="-119.683640">
        <ele>1667.998</ele>
        <time>2018-12-27T23:54:15Z</time>
      </trkpt>
      <trkpt lat="37.608990" lon="-119.683620">
        <ele>1668.744</ele>
        <time>2018-12-27T23:54:35Z</time>
      </trkpt>
      <trkpt lat="37.608860" lon="-119.683620">
        <ele>1669.263</ele>
        <time>2018-12-27T23:54:55Z</time>
      </trkpt>
      <trkpt lat="37.608610" lon="-119.683670">
        <ele>1668.226</ele>
        <time>2018-12-27T23:55:15Z</time>
      </trkpt>
      <trkpt lat="37.607370" lon="-119.684070">
        <ele>1665.047</ele>
        <time>2018-12-27T23:55:35Z</time>
      </trkpt>
      <trkpt lat="37.606910" lon="-119.684190">
        <ele>1664.011</ele>
        <time>2018-12-27T23:55:55Z</time>
      </trkpt>
      <trkpt lat="37.606680" lon="-119.684250">
        <ele>1664.008</ele>
        <time>2018-12-27T23:56:15Z</time>
      </trkpt>
      <trkpt lat="37.606340" lon="-119.684260">
        <ele>1662.655</ele>
        <time>2018-12-27T23:56:35Z</time>
      </trkpt>
      <trkpt lat="37.606170" lon="-119.684230">
        <ele>1662.253</ele>
        <time>2018-12-27T23:56:55Z</time>
      </trkpt>
      <trkpt lat="37.606020" lon="-119.684180">
        <ele>1662.328</ele>
        <time>2018-12-27T23:57:15Z</time>
      </trkpt>
      <trkpt lat="37.605850" lon="-119.684080">
        <ele>1661.588</ele>
        <time>2018-12-27T23:57:35Z</time>
      </trkpt>
      <trkpt lat="37.605550" lon="-119.683910">
        <ele>1656.432</ele>
        <time>2018-12-27T23:57:55Z</time>
      </trkpt>
      <trkpt lat="37.605420" lon="-119.683850">
        <ele>1653.632</ele>
        <time>2018-12-27T23:58:15Z</time>
      </trkpt>
      <trkpt lat="37.605290" lon="-119.683820">
        <ele>1653.838</ele>
        <time>2018-12-27T23:58:35Z</time>
      </trkpt>
      <trkpt lat="37.605200" lon="-119.683820">
        <ele>1653.447</ele>
        <time>2018-12-27T23:58:55Z</time>
      </trkpt>
      <trkpt lat="37.605130" lon="-119.683830">
        <ele>1653.372</ele>
        <time>2018-12-27T23:59:15Z</time>
      </trkpt>
      <trkpt lat="37.605060" lon="-119.683850">
        <ele>1655.013</ele>
        <time>2018-12-27T23:59:35Z</time>
      </trkpt>
      <trkpt lat="37.604890" lon="-119.683930">
        <ele>1659.714</ele>
        <time>2018-12-27T23:59:55Z</time>
      </trkpt>
      <trkpt lat="37.604700" lon="-119.684070">
        <ele>1663.408</ele>
        <time>2018-12-28T00:00:15Z</time>
      </trkpt>
      <trkpt lat="37.604540" lon="-119.684240">
        <ele>1664.180</ele>
        <time>2018-12-28T00:00:35Z</time>
      </trkpt>
      <trkpt lat="37.604330" lon="-119.684490">
        <ele>1664.448</ele>
        <time>2018-12-28T00:00:55Z</time>
      </trkpt>
      <trkpt lat="37.604150" lon="-119.684770">
        <ele>1664.923</ele>
        <time>2018-12-28T00:01:15Z</time>
      </trkpt>
      <trkpt lat="37.604020" lon="-119.685030">
        <ele>1664.463</ele>
        <time>2018-12-28T00:01:35Z</time>
      </trkpt>
      <trkpt lat="37.603920" lon="-119.685230">
        <ele>1663.667</ele>
        <time>2018-12-28T00:01:55Z</time>
      </trkpt>
      <trkpt lat="37.603820" lon="-119.685400">
        <ele>1662.797</ele>
        <time>2018-12-28T00:02:15Z</time>
      </trkpt>
      <trkpt lat="37.603720" lon="-119.685500">
        <ele>1662.363</ele>
        <time>2018-12-28T00:02:35Z</time>
      </trkpt>
      <trkpt lat="37.603620" lon="-119.685590">
        <ele>1661.192</ele>
        <time>2018-12-28T00:02:55Z</time>
      </trkpt>
      <trkpt lat="37.603530" lon="-119.685640">
        <ele>1660.577</ele>
        <time>2018-12-28T00:03:15Z</time>
      </trkpt>
      <trkpt lat="37.603420" lon="-119.685680">
        <ele>1659.261</ele>
        <time>2018-12-28T00:03:35Z</time>
      </trkpt>
      <trkpt lat="37.603340" lon="-119.685690">
        <ele>1657.927</ele>
        <time>2018-12-28T00:03:55Z</time>
      </trkpt>
      <trkpt lat="37.603280" lon="-119.685690">
        <ele>1657.008</ele>
        <time>2018-12-28T00:04:15Z</time>
      </trkpt>
      <trkpt lat="37.603210" lon="-119.685690">
        <ele>1656.070</ele>
        <time>2018-12-28T00:04:35Z</time>
      </trkpt>
      <trkpt lat="37.603130" lon="-119.685680">
        <ele>1655.238</ele>
        <time>2018-12-28T00:04:55Z</time>
      </trkpt>
      <trkpt lat="37.603010" lon="-119.685650">
        <ele>1654.543</ele>
        <time>2018-12-28T00:05:15Z</time>
      </trkpt>
      <trkpt lat="37.602710" lon="-119.685540">
        <ele>1654.553</ele>
        <time>2018-12-28T00:05:35Z</time>
      </trkpt>
      <trkpt lat="37.602620" lon="-119.685520">
        <ele>1654.367</ele>
        <time>2018-12-28T00:05:55Z</time>
      </trkpt>
      <trkpt lat="37.602430" lon="-119.685410">
        <ele>1654.437</ele>
        <time>2018-12-28T00:06:15Z</time>
      </trkpt>
      <trkpt lat="37.602310" lon="-119.685340">
        <ele>1654.293</ele>
        <time>2018-12-28T00:06:35Z</time>
      </trkpt>
      <trkpt lat="37.602220" lon="-119.685250">
        <ele>1654.542</ele>
        <time>2018-12-28T00:06:55Z</time>
      </trkpt>
      <trkpt lat="37.602160" lon="-119.685180">
        <ele>1654.818</ele>
        <time>2018-12-28T00:07:15Z</time>
      </trkpt>
      <trkpt lat="37.601970" lon="-119.685000">
        <ele>1655.298</ele>
        <time>2018-12-28T00:07:35Z</time>
      </trkpt>
      <trkpt lat="37.601890" lon="-119.684940">
        <ele>1655.317</ele>
        <time>2018-12-28T00:07:55Z</time>
      </trkpt>
      <trkpt lat="37.601820" lon="-119.684900">
        <ele>1655.308</ele>
        <time>2018-12-28T00:08:15Z</time>
      </trkpt>
      <trkpt lat="37.601750" lon="-119.684870">
        <ele>1655.454</ele>
        <time>2018-12-28T00:08:35Z</time>
      </trkpt>
      <trkpt lat="37.601620" lon="-119.684850">
        <ele>1655.082</ele>
        <time>2018-12-28T00:08:55Z</time>
      </trkpt>
      <trkpt lat="37.601490" lon="-119.684840">
        <ele>1654.247</ele>
        <time>2018-12-28T00:09:15Z</time>
      </trkpt>
      <trkpt lat="37.601390" lon="-119.684830">
        <ele>1653.467</ele>
        <time>2018-12-28T00:09:35Z</time>
      </trkpt>
      <trkpt lat="37.601300" lon="-119.684810">
        <ele>1652.821</ele>
        <time>2018-12-28T00:09:55Z</time>
      </trkpt>
      <trkpt lat="37.601220" lon="-119.684780">
        <ele>1652.411</ele>
        <time>2018-12-28T00:10:15Z</time>
      </trkpt>
      <trkpt lat="37.601120" lon="-119.684740">
        <ele>1651.397</ele>
        <time>2018-12-28T00:10:35Z</time>
      </trkpt>
      <trkpt lat="37.601050" lon="-119.684690">
        <ele>1651.016</ele>
        <time>2018-12-28T00:10:55Z</time>
      </trkpt>
      <trkpt lat="37.600990" lon="-119.684640">
        <ele>1650.722</ele>
        <time>2018-12-28T00:11:15Z</time>
      </trkpt>
      <trkpt lat="37.600930" lon="-119.684570">
        <ele>1651.162</ele>
        <time>2018-12-28T00:11:35Z</time>
      </trkpt>
      <trkpt lat="37.600870" lon="-119.684500">
        <ele>1651.508</ele>
        <time>2018-12-28T00:11:55Z</time>
      </trkpt>
      <trkpt lat="37.600830" lon="-119.684420">
        <ele>1652.308</ele>
        <time>2018-12-28T00:12:15Z</time>
      </trkpt>
      <trkpt lat="37.600790" lon="-119.684340">
        <ele>1652.815</ele>
        <time>2018-12-28T00:12:35Z</time>
      </trkpt>
      <trkpt lat="37.600760" lon="-119.684260">
        <ele>1652.663</ele>
        <time>2018-12-28T00:12:55Z</time>
      </trkpt>
      <trkpt lat="37.600730" lon="-119.684140">
        <ele>1651.648</ele>
        <time>2018-12-28T00:13:15Z</time>
      </trkpt>
      <trkpt lat="37.600700" lon="-119.683880">
        <ele>1650.548</ele>
        <time>2018-12-28T00:13:35Z</time>
      </trkpt>
      <trkpt lat="37.600680" lon="-119.683710">
        <ele>1650.172</ele>
        <time>2018-12-28T00:13:55Z</time>
      </trkpt>
      <trkpt lat="37.600670" lon="-119.683650">
        <ele>1650.042</ele>
        <time>2018-12-28T00:14:15Z</time>
      </trkpt>
      <trkpt lat="37.600610" lon="-119.683500">
        <ele>1649.288</ele>
        <time>2018-12-28T00:14:35Z</time>
      </trkpt>
      <trkpt lat="37.600540" lon="-119.683380">
        <ele>1649.717</ele>
        <time>2018-12-28T00:14:55Z</time>
      </trkpt>
      <trkpt lat="37.600470" lon="-119.683300">
        <ele>1650.294</ele>
        <time>2018-12-28T00:15:15Z</time>
      </trkpt>
      <trkpt lat="37.600370" lon="-119.683210">
        <ele>1650.957</ele>
        <time>2018-12-28T00:15:35Z</time>
      </trkpt>
      <trkpt lat="37.600210" lon="-119.683120">
        <ele>1650.922</ele>
        <time>2018-12-28T00:15:55Z</time>
      </trkpt>
      <trkpt lat="37.600080" lon="-119.683060">
        <ele>1650.608</ele>
        <time>2018-12-28T00:16:15Z</time>
      </trkpt>
      <trkpt lat="37.599850" lon="-119.682970">
        <ele>1650.182</ele>
        <time>2018-12-28T00:16:35Z</time>
      </trkpt>
      <trkpt lat="37.599640" lon="-119.682900">
        <ele>1651.540</ele>
        <time>2018-12-28T00:16:55Z</time>
      </trkpt>
      <trkpt lat="37.599550" lon="-119.682900">
        <ele>1651.465</ele>
        <time>2018-12-28T00:17:15Z</time>
      </trkpt>
      <trkpt lat="37.599450" lon="-119.682910">
        <ele>1651.175</ele>
        <time>2018-12-28T00:17:35Z</time>
      </trkpt>
      <trkpt lat="37.599330" lon="-119.682930">
        <ele>1650.539</ele>
        <time>2018-12-28T00:17:55Z</time>
      </trkpt>
      <trkpt lat="37.599210" lon="-119.682950">
        <ele>1649.769</ele>
        <time>2018-12-28T00:18:15Z</time>
      </trkpt>
      <trkpt lat="37.599120" lon="-119.682950">
        <ele>1649.565</ele>
        <time>2018-12-28T00:18:35Z</time>
      </trkpt>
      <trkpt lat="37.598980" lon="-119.682920">
        <ele>1649.514</ele>
        <time>2018-12-28T00:18:55Z</time>
      </trkpt>
      <trkpt lat="37.598820" lon="-119.682830">
        <ele>1649.881</ele>
        <time>2018-12-28T00:19:15Z</time>
      </trkpt>
      <trkpt lat="37.598660" lon="-119.682720">
        <ele>1649.861</ele>
        <time>2018-12-28T00:19:35Z</time>
      </trkpt>
      <trkpt lat="37.598530" lon="-119.682660">
        <ele>1649.417</ele>
        <time>2018-12-28T00:19:55Z</time>
      </trkpt>
      <trkpt lat="37.598310" lon="-119.682590">
        <ele>1647.708</ele>
        <time>2018-12-28T00:20:15Z</time>
      </trkpt>
      <trkpt lat="37.597940" lon="-119.682530">
        <ele>1643.581</ele>
        <time>2018-12-28T00:20:35Z</time>
      </trkpt>
      <trkpt lat="37.597820" lon="-119.682540">
        <ele>1643.349</ele>
        <time>2018-12-28T00:20:55Z</time>
      </trkpt>
      <trkpt lat="37.597670" lon="-119.682570">
        <ele>1643.274</ele>
        <time>2018-12-28T00:21:15Z</time>
      </trkpt>
      <trkpt lat="37.597580" lon="-119.682590">
        <ele>1643.794</ele>
        <time>2018-12-28T00:21:35Z</time>
      </trkpt>
      <trkpt lat="37.597420" lon="-119.682670">
        <ele>1644.078</ele>
        <time>2018-12-28T00:21:55Z</time>
      </trkpt>
      <trkpt lat="37.597310" lon="-119.682760">
        <ele>1643.948</ele>
        <time>2018-12-28T00:22:15Z</time>
      </trkpt>
      <trkpt lat="37.597180" lon="-119.682890">
        <ele>1643.024</ele>
        <time>2018-12-28T00:22:35Z</time>
      </trkpt>
      <trkpt lat="37.596990" lon="-119.683160">
        <ele>1640.713</ele>
        <time>2018-12-28T00:22:55Z</time>
      </trkpt>
      <trkpt lat="37.596860" lon="-119.683330">
        <ele>1639.261</ele>
        <time>2018-12-28T00:23:15Z</time>
      </trkpt>
      <trkpt lat="37.596770" lon="-119.683440">
        <ele>1638.021</ele>
        <time>2018-12-28T00:23:35Z</time>
      </trkpt>
      <trkpt lat="37.596580" lon="-119.683590">
        <ele>1635.613</ele>
        <time>2018-12-28T00:23:55Z</time>
      </trkpt>
      <trkpt lat="37.596320" lon="-119.683680">
        <ele>1632.008</ele>
        <time>2018-12-28T00:24:15Z</time>
      </trkpt>
      <trkpt lat="37.596060" lon="-119.683770">
        <ele>1628.959</ele>
        <time>2018-12-28T00:24:35Z</time>
      </trkpt>
      <trkpt lat="37.595840" lon="-119.683810">
        <ele>1627.377</ele>
        <time>2018-12-28T00:24:55Z</time>
      </trkpt>
      <trkpt lat="37.595700" lon="-119.683810">
        <ele>1626.512</ele>
        <time>2018-12-28T00:25:15Z</time>
      </trkpt>
      <trkpt lat="37.595580" lon="-119.683780">
        <ele>1625.262</ele>
        <time>2018-12-28T00:25:35Z</time>
      </trkpt>
      <trkpt lat="37.595220" lon="-119.683630">
        <ele>1625.686</ele>
        <time>2018-12-28T00:25:55Z</time>
      </trkpt>
      <trkpt lat="37.595080" lon="-119.683580">
        <ele>1626.496</ele>
        <time>2018-12-28T00:26:15Z</time>
      </trkpt>
      <trkpt lat="37.594980" lon="-119.683570">
        <ele>1626.562</ele>
        <time>2018-12-28T00:26:35Z</time>
      </trkpt>
      <trkpt lat="37.594880" lon="-119.683580">
        <ele>1626.291</ele>
        <time>2018-12-28T00:26:55Z</time>
      </trkpt>
      <trkpt lat="37.594130" lon="-119.683700">
        <ele>1619.699</ele>
        <time>2018-12-28T00:27:15Z</time>
      </trkpt>
      <trkpt lat="37.593860" lon="-119.683740">
        <ele>1618.607</ele>
        <time>2018-12-28T00:27:35Z</time>
      </trkpt>
      <trkpt lat="37.593450" lon="-119.683820">
        <ele>1619.027</ele>
        <time>2018-12-28T00:27:55Z</time>
      </trkpt>
      <trkpt lat="37.593060" lon="-119.684060">
        <ele>1618.208</ele>
        <time>2018-12-28T00:28:15Z</time>
      </trkpt>
      <trkpt lat="37.592990" lon="-119.684100">
        <ele>1617.892</ele>
        <time>2018-12-28T00:28:35Z</time>
      </trkpt>
      <trkpt lat="37.592850" lon="-119.684140">
        <ele>1617.250</ele>
        <time>2018-12-28T00:28:55Z</time>
      </trkpt>
      <trkpt lat="37.592770" lon="-119.684150">
        <ele>1617.055</ele>
        <time>2018-12-28T00:29:15Z</time>
      </trkpt>
      <trkpt lat="37.592610" lon="-119.684150">
        <ele>1616.825</ele>
        <time>2018-12-28T00:29:35Z</time>
      </trkpt>
      <trkpt lat="37.592390" lon="-119.684150">
        <ele>1615.789</ele>
        <time>2018-12-28T00:29:55Z</time>
      </trkpt>
      <trkpt lat="37.592250" lon="-119.684160">
        <ele>1615.189</ele>
        <time>2018-12-28T00:30:15Z</time>
      </trkpt>
      <trkpt lat="37.592200" lon="-119.684190">
        <ele>1614.315</ele>
        <time>2018-12-28T00:30:35Z</time>
      </trkpt>
      <trkpt lat="37.592120" lon="-119.684240">
        <ele>1613.094</ele>
        <time>2018-12-28T00:30:55Z</time>
      </trkpt>
      <trkpt lat="37.592060" lon="-119.684290">
        <ele>1612.083</ele>
        <time>2018-12-28T00:31:15Z</time>
      </trkpt>
      <trkpt lat="37.591980" lon="-119.684370">
        <ele>1612.025</ele>
        <time>2018-12-28T00:31:35Z</time>
      </trkpt>
      <trkpt lat="37.591870" lon="-119.684570">
        <ele>1611.617</ele>
        <time>2018-12-28T00:31:55Z</time>
      </trkpt>
      <trkpt lat="37.591610" lon="-119.685050">
        <ele>1612.208</ele>
        <time>2018-12-28T00:32:15Z</time>
      </trkpt>
      <trkpt lat="37.591300" lon="-119.685760">
        <ele>1608.261</ele>
        <time>2018-12-28T00:32:35Z</time>
      </trkpt>
      <trkpt lat="37.591160" lon="-119.686180">
        <ele>1607.729</ele>
        <time>2018-12-28T00:32:55Z</time>
      </trkpt>
      <trkpt lat="37.590960" lon="-119.686980">
        <ele>1601.114</ele>
        <time>2018-12-28T00:33:15Z</time>
      </trkpt>
      <trkpt lat="37.590920" lon="-119.687080">
        <ele>1600.334</ele>
        <time>2018-12-28T00:33:35Z</time>
      </trkpt>
      <trkpt lat="37.590860" lon="-119.687200">
        <ele>1599.738</ele>
        <time>2018-12-28T00:33:55Z</time>
      </trkpt>
      <trkpt lat="37.590760" lon="-119.687350">
        <ele>1599.478</ele>
        <time>2018-12-28T00:34:15Z</time>
      </trkpt>
      <trkpt lat="37.590640" lon="-119.687530">
        <ele>1598.034</ele>
        <time>2018-12-28T00:34:35Z</time>
      </trkpt>
      <trkpt lat="37.590590" lon="-119.687610">
        <ele>1597.243</ele>
        <time>2018-12-28T00:34:55Z</time>
      </trkpt>
      <trkpt lat="37.590520" lon="-119.687750">
        <ele>1597.141</ele>
        <time>2018-12-28T00:35:15Z</time>
      </trkpt>
      <trkpt lat="37.590490" lon="-119.687870">
        <ele>1597.081</ele>
        <time>2018-12-28T00:35:35Z</time>
      </trkpt>
      <trkpt lat="37.590460" lon="-119.688020">
        <ele>1597.009</ele>
        <time>2018-12-28T00:35:55Z</time>
      </trkpt>
      <trkpt lat="37.590460" lon="-119.688490">
        <ele>1595.208</ele>
        <time>2018-12-28T00:36:15Z</time>
      </trkpt>
      <trkpt lat="37.590450" lon="-119.688720">
        <ele>1593.657</ele>
        <time>2018-12-28T00:36:35Z</time>
      </trkpt>
      <trkpt lat="37.590390" lon="-119.688970">
        <ele>1592.345</ele>
        <time>2018-12-28T00:36:55Z</time>
      </trkpt>
      <trkpt lat="37.590330" lon="-119.689100">
        <ele>1591.940</ele>
        <time>2018-12-28T00:37:15Z</time>
      </trkpt>
      <trkpt lat="37.590230" lon="-119.689270">
        <ele>1591.010</ele>
        <time>2018-12-28T00:37:35Z</time>
      </trkpt>
      <trkpt lat="37.590140" lon="-119.689430">
        <ele>1589.964</ele>
        <time>2018-12-28T00:37:55Z</time>
      </trkpt>
      <trkpt lat="37.589990" lon="-119.689580">
        <ele>1589.024</ele>
        <time>2018-12-28T00:38:15Z</time>
      </trkpt>
      <trkpt lat="37.589820" lon="-119.689680">
        <ele>1588.780</ele>
        <time>2018-12-28T00:38:35Z</time>
      </trkpt>
      <trkpt lat="37.589620" lon="-119.689770">
        <ele>1586.859</ele>
        <time>2018-12-28T00:38:55Z</time>
      </trkpt>
      <trkpt lat="37.589320" lon="-119.689870">
        <ele>1581.187</ele>
        <time>2018-12-28T00:39:15Z</time>
      </trkpt>
      <trkpt lat="37.589160" lon="-119.689890">
        <ele>1579.042</ele>
        <time>2018-12-28T00:39:35Z</time>
      </trkpt>
      <trkpt lat="37.588980" lon="-119.689890">
        <ele>1577.126</ele>
        <time>2018-12-28T00:39:55Z</time>
      </trkpt>
      <trkpt lat="37.588790" lon="-119.689850">
        <ele>1576.508</ele>
        <time>2018-12-28T00:40:15Z</time>
      </trkpt>
      <trkpt lat="37.588560" lon="-119.689780">
        <ele>1576.261</ele>
        <time>2018-12-28T00:40:35Z</time>
      </trkpt>
      <trkpt lat="37.588180" lon="-119.689580">
        <ele>1579.049</ele>
        <time>2018-12-28T00:40:55Z</time>
      </trkpt>
      <trkpt lat="37.588040" lon="-119.689510">
        <ele>1579.584</ele>
        <time>2018-12-28T00:41:15Z</time>
      </trkpt>
      <trkpt lat="37.587860" lon="-119.689480">
        <ele>1578.354</ele>
        <time>2018-12-28T00:41:35Z</time>
      </trkpt>
      <trkpt lat="37.587730" lon="-119.689480">
        <ele>1576.728</ele>
        <time>2018-12-28T00:41:55Z</time>
      </trkpt>
      <trkpt lat="37.587630" lon="-119.689490">
        <ele>1575.398</ele>
        <time>2018-12-28T00:42:15Z</time>
      </trkpt>
      <trkpt lat="37.587560" lon="-119.689520">
        <ele>1574.654</ele>
        <time>2018-12-28T00:42:35Z</time>
      </trkpt>
      <trkpt lat="37.587300" lon="-119.689670">
        <ele>1570.723</ele>
        <time>2018-12-28T00:42:55Z</time>
      </trkpt>
      <trkpt lat="37.587170" lon="-119.689720">
        <ele>1569.331</ele>
        <time>2018-12-28T00:43:15Z</time>
      </trkpt>
      <trkpt lat="37.587100" lon="-119.689750">
        <ele>1568.661</ele>
        <time>2018-12-28T00:43:35Z</time>
      </trkpt>
      <trkpt lat="37.586980" lon="-119.689750">
        <ele>1568.207</ele>
        <time>2018-12-28T00:43:55Z</time>
      </trkpt>
      <trkpt lat="37.586840" lon="-119.689720">
        <ele>1568.608</ele>
        <time>2018-12-28T00:44:15Z</time>
      </trkpt>
      <trkpt lat="37.586680" lon="-119.689640">
        <ele>1568.856</ele>
        <time>2018-12-28T00:44:35Z</time>
      </trkpt>
      <trkpt lat="37.586580" lon="-119.689550">
        <ele>1569.594</ele>
        <time>2018-12-28T00:44:55Z</time>
      </trkpt>
      <trkpt lat="37.586460" lon="-119.689430">
        <ele>1570.229</ele>
        <time>2018-12-28T00:45:15Z</time>
      </trkpt>
      <trkpt lat="37.586300" lon="-119.689230">
        <ele>1571.489</ele>
        <time>2018-12-28T00:45:35Z</time>
      </trkpt>
      <trkpt lat="37.586170" lon="-119.689150">
        <ele>1570.563</ele>
        <time>2018-12-28T00:45:55Z</time>
      </trkpt>
      <trkpt lat="37.586120" lon="-119.689120">
        <ele>1570.373</ele>
        <time>2018-12-28T00:46:15Z</time>
      </trkpt>
      <trkpt lat="37.586080" lon="-119.689110">
        <ele>1569.989</ele>
        <time>2018-12-28T00:46:35Z</time>
      </trkpt>
      <trkpt lat="37.586030" lon="-119.689110">
        <ele>1569.248</ele>
        <time>2018-12-28T00:46:55Z</time>
      </trkpt>
      <trkpt lat="37.585980" lon="-119.689110">
        <ele>1568.532</ele>
        <time>2018-12-28T00:47:15Z</time>
      </trkpt>
      <trkpt lat="37.585900" lon="-119.689120">
        <ele>1567.792</ele>
        <time>2018-12-28T00:47:35Z</time>
      </trkpt>
      <trkpt lat="37.585770" lon="-119.689170">
        <ele>1565.811</ele>
        <time>2018-12-28T00:47:55Z</time>
      </trkpt>
      <trkpt lat="37.585660" lon="-119.689220">
        <ele>1564.008</ele>
        <time>2018-12-28T00:48:15Z</time>
      </trkpt>
      <trkpt lat="37.585550" lon="-119.689280">
        <ele>1561.396</ele>
        <time>2018-12-28T00:48:35Z</time>
      </trkpt>
      <trkpt lat="37.585470" lon="-119.689320">
        <ele>1559.334</ele>
        <time>2018-12-28T00:48:55Z</time>
      </trkpt>
      <trkpt lat="37.585350" lon="-119.689360">
        <ele>1557.499</ele>
        <time>2018-12-28T00:49:15Z</time>
      </trkpt>
      <trkpt lat="37.585220" lon="-119.689400">
        <ele>1555.979</ele>
        <time>2018-12-28T00:49:35Z</time>
      </trkpt>
      <trkpt lat="37.585090" lon="-119.689400">
        <ele>1555.313</ele>
        <time>2018-12-28T00:49:55Z</time>
      </trkpt>
      <trkpt lat="37.585010" lon="-119.689400">
        <ele>1555.073</ele>
        <time>2018-12-28T00:50:15Z</time>
      </trkpt>
      <trkpt lat="37.584910" lon="-119.689370">
        <ele>1555.529</ele>
        <time>2018-12-28T00:50:35Z</time>
      </trkpt>
      <trkpt lat="37.584850" lon="-119.689350">
        <ele>1555.788</ele>
        <time>2018-12-28T00:50:55Z</time>
      </trkpt>
      <trkpt lat="37.584710" lon="-119.689290">
        <ele>1555.729</ele>
        <time>2018-12-28T00:51:15Z</time>
      </trkpt>
      <trkpt lat="37.584610" lon="-119.689220">
        <ele>1556.300</ele>
        <time>2018-12-28T00:51:35Z</time>
      </trkpt>
      <trkpt lat="37.584500" lon="-119.689140">
        <ele>1556.320</ele>
        <time>2018-12-28T00:51:55Z</time>
      </trkpt>
      <trkpt lat="37.584410" lon="-119.689070">
        <ele>1556.008</ele>
        <time>2018-12-28T00:52:15Z</time>
      </trkpt>
      <trkpt lat="37.584340" lon="-119.688990">
        <ele>1556.125</ele>
        <time>2018-12-28T00:52:35Z</time>
      </trkpt>
      <trkpt lat="37.584280" lon="-119.688890">
        <ele>1556.383</ele>
        <time>2018-12-28T00:52:55Z</time>
      </trkpt>
      <trkpt lat="37.584210" lon="-119.688750">
        <ele>1556.788</ele>
        <time>2018-12-28T00:53:15Z</time>
      </trkpt>
      <trkpt lat="37.584130" lon="-119.688570">
        <ele>1555.778</ele>
        <time>2018-12-28T00:53:35Z</time>
      </trkpt>
      <trkpt lat="37.584070" lon="-119.688380">
        <ele>1554.752</ele>
        <time>2018-12-28T00:53:55Z</time>
      </trkpt>
      <trkpt lat="37.584030" lon="-119.688140">
        <ele>1552.522</ele>
        <time>2018-12-28T00:54:15Z</time>
      </trkpt>
      <trkpt lat="37.583990" lon="-119.687760">
        <ele>1548.688</ele>
        <time>2018-12-28T00:54:35Z</time>
      </trkpt>
      <trkpt lat="37.583950" lon="-119.687620">
        <ele>1548.247</ele>
        <time>2018-12-28T00:54:55Z</time>
      </trkpt>
      <trkpt lat="37.583910" lon="-119.687520">
        <ele>1548.986</ele>
        <time>2018-12-28T00:55:15Z</time>
      </trkpt>
      <trkpt lat="37.583850" lon="-119.687440">
        <ele>1548.560</ele>
        <time>2018-12-28T00:55:35Z</time>
      </trkpt>
      <trkpt lat="37.583670" lon="-119.687210">
        <ele>1546.826</ele>
        <time>2018-12-28T00:55:55Z</time>
      </trkpt>
      <trkpt lat="37.583560" lon="-119.687030">
        <ele>1546.108</ele>
        <time>2018-12-28T00:56:15Z</time>
      </trkpt>
      <trkpt lat="37.583510" lon="-119.686910">
        <ele>1545.731</ele>
        <time>2018-12-28T00:56:35Z</time>
      </trkpt>
      <trkpt lat="37.583480" lon="-119.686820">
        <ele>1545.559</ele>
        <time>2018-12-28T00:56:55Z</time>
      </trkpt>
      <trkpt lat="37.583460" lon="-119.686700">
        <ele>1545.134</ele>
        <time>2018-12-28T00:57:15Z</time>
      </trkpt>
      <trkpt lat="37.583460" lon="-119.686300">
        <ele>1544.644</ele>
        <time>2018-12-28T00:57:35Z</time>
      </trkpt>
      <trkpt lat="37.583450" lon="-119.685880">
        <ele>1539.238</ele>
        <time>2018-12-28T00:57:55Z</time>
      </trkpt>
      <trkpt lat="37.583430" lon="-119.685700">
        <ele>1535.218</ele>
        <time>2018-12-28T00:58:15Z</time>
      </trkpt>
      <trkpt lat="37.583400" lon="-119.685540">
        <ele>1535.264</ele>
        <time>2018-12-28T00:58:35Z</time>
      </trkpt>
      <trkpt lat="37.583350" lon="-119.685390">
        <ele>1535.063</ele>
        <time>2018-12-28T00:58:55Z</time>
      </trkpt>
      <trkpt lat="37.583170" lon="-119.685000">
        <ele>1534.258</ele>
        <time>2018-12-28T00:59:15Z</time>
      </trkpt>
      <trkpt lat="37.582810" lon="-119.684280">
        <ele>1533.052</ele>
        <time>2018-12-28T00:59:35Z</time>
      </trkpt>
      <trkpt lat="37.582620" lon="-119.683890">
        <ele>1531.917</ele>
        <time>2018-12-28T00:59:55Z</time>
      </trkpt>
      <trkpt lat="37.582230" lon="-119.683030">
        <ele>1527.708</ele>
        <time>2018-12-28T01:00:15Z</time>
      </trkpt>
      <trkpt lat="37.582140" lon="-119.682860">
        <ele>1525.988</ele>
        <time>2018-12-28T01:00:35Z</time>
      </trkpt>
      <trkpt lat="37.582070" lon="-119.682760">
        <ele>1524.666</ele>
        <time>2018-12-28T01:00:55Z</time>
      </trkpt>
      <trkpt lat="37.581970" lon="-119.682620">
        <ele>1523.441</ele>
        <time>2018-12-28T01:01:15Z</time>
      </trkpt>
      <trkpt lat="37.581810" lon="-119.682420">
        <ele>1521.851</ele>
        <time>2018-12-28T01:01:35Z</time>
      </trkpt>
      <trkpt lat="37.581610" lon="-119.682150">
        <ele>1521.795</ele>
        <time>2018-12-28T01:01:55Z</time>
      </trkpt>
      <trkpt lat="37.581500" lon="-119.682000">
        <ele>1521.025</ele>
        <time>2018-12-28T01:02:15Z</time>
      </trkpt>
      <trkpt lat="37.581430" lon="-119.681940">
        <ele>1520.711</ele>
        <time>2018-12-28T01:02:35Z</time>
      </trkpt>
      <trkpt lat="37.581350" lon="-119.681890">
        <ele>1520.270</ele>
        <time>2018-12-28T01:02:55Z</time>
      </trkpt>
      <trkpt lat="37.581280" lon="-119.681860">
        <ele>1519.829</ele>
        <time>2018-12-28T01:03:15Z</time>
      </trkpt>
      <trkpt lat="37.581230" lon="-119.681840">
        <ele>1519.800</ele>
        <time>2018-12-28T01:03:35Z</time>
      </trkpt>
      <trkpt lat="37.581160" lon="-119.681830">
        <ele>1519.720</ele>
        <time>2018-12-28T01:03:55Z</time>
      </trkpt>
      <trkpt lat="37.581050" lon="-119.681840">
        <ele>1518.808</ele>
        <time>2018-12-28T01:04:15Z</time>
      </trkpt>
      <trkpt lat="37.580950" lon="-119.681850">
        <ele>1518.195</ele>
        <time>2018-12-28T01:04:35Z</time>
      </trkpt>
      <trkpt lat="37.580850" lon="-119.681860">
        <ele>1517.633</ele>
        <time>2018-12-28T01:04:55Z</time>
      </trkpt>
      <trkpt lat="37.580710" lon="-119.681850">
        <ele>1517.518</ele>
        <time>2018-12-28T01:05:15Z</time>
      </trkpt>
      <trkpt lat="37.580640" lon="-119.681850">
        <ele>1517.098</ele>
        <time>2018-12-28T01:05:35Z</time>
      </trkpt>
      <trkpt lat="37.580590" lon="-119.681840">
        <ele>1516.922</ele>
        <time>2018-12-28T01:05:55Z</time>
      </trkpt>
      <trkpt lat="37.580530" lon="-119.681830">
        <ele>1516.722</ele>
        <time>2018-12-28T01:06:15Z</time>
      </trkpt>
      <trkpt lat="37.580450" lon="-119.681800">
        <ele>1516.958</ele>
        <time>2018-12-28T01:06:35Z</time>
      </trkpt>
      <trkpt lat="37.580360" lon="-119.681750">
        <ele>1516.857</ele>
        <time>2018-12-28T01:06:55Z</time>
      </trkpt>
      <trkpt lat="37.580290" lon="-119.681690">
        <ele>1516.693</ele>
        <time>2018-12-28T01:07:15Z</time>
      </trkpt>
      <trkpt lat="37.580190" lon="-119.681600">
        <ele>1515.765</ele>
        <time>2018-12-28T01:07:35Z</time>
      </trkpt>
      <trkpt lat="37.580110" lon="-119.681520">
        <ele>1514.521</ele>
        <time>2018-12-28T01:07:55Z</time>
      </trkpt>
      <trkpt lat="37.579920" lon="-119.681220">
        <ele>1511.508</ele>
        <time>2018-12-28T01:08:15Z</time>
      </trkpt>
      <trkpt lat="37.579770" lon="-119.680960">
        <ele>1511.172</ele>
        <time>2018-12-28T01:08:35Z</time>
      </trkpt>
      <trkpt lat="37.579680" lon="-119.680750">
        <ele>1510.410</ele>
        <time>2018-12-28T01:08:55Z</time>
      </trkpt>
      <trkpt lat="37.579650" lon="-119.680640">
        <ele>1509.985</ele>
        <time>2018-12-28T01:09:15Z</time>
      </trkpt>
      <trkpt lat="37.579640" lon="-119.680540">
        <ele>1509.565</ele>
        <time>2018-12-28T01:09:35Z</time>
      </trkpt>
      <trkpt lat="37.579630" lon="-119.680420">
        <ele>1508.979</ele>
        <time>2018-12-28T01:09:55Z</time>
      </trkpt>
      <trkpt lat="37.579640" lon="-119.680320">
        <ele>1508.049</ele>
        <time>2018-12-28T01:10:15Z</time>
      </trkpt>
      <trkpt lat="37.579650" lon="-119.680220">
        <ele>1506.945</ele>
        <time>2018-12-28T01:10:35Z</time>
      </trkpt>
      <trkpt lat="37.579690" lon="-119.680040">
        <ele>1504.714</ele>
        <time>2018-12-28T01:10:55Z</time>
      </trkpt>
      <trkpt lat="37.579750" lon="-119.679890">
        <ele>1501.874</ele>
        <time>2018-12-28T01:11:15Z</time>
      </trkpt>
      <trkpt lat="37.579850" lon="-119.679710">
        <ele>1498.256</ele>
        <time>2018-12-28T01:11:35Z</time>
      </trkpt>
      <trkpt lat="37.579960" lon="-119.679580">
        <ele>1497.821</ele>
        <time>2018-12-28T01:11:55Z</time>
      </trkpt>
      <trkpt lat="37.580210" lon="-119.679260">
        <ele>1497.208</ele>
        <time>2018-12-28T01:12:15Z</time>
      </trkpt>
      <trkpt lat="37.580340" lon="-119.679060">
        <ele>1498.930</ele>
        <time>2018-12-28T01:12:35Z</time>
      </trkpt>
      <trkpt lat="37.580380" lon="-119.678940">
        <ele>1499.068</ele>
        <time>2018-12-28T01:12:55Z</time>
      </trkpt>
      <trkpt lat="37.580390" lon="-119.678830">
        <ele>1498.343</ele>
        <time>2018-12-28T01:13:15Z</time>
      </trkpt>
      <trkpt lat="37.580400" lon="-119.678710">
        <ele>1497.383</ele>
        <time>2018-12-28T01:13:35Z</time>
      </trkpt>
      <trkpt lat="37.580400" lon="-119.678640">
        <ele>1496.287</ele>
        <time>2018-12-28T01:13:55Z</time>
      </trkpt>
      <trkpt lat="37.580390" lon="-119.678570">
        <ele>1494.777</ele>
        <time>2018-12-28T01:14:15Z</time>
      </trkpt>
      <trkpt lat="37.580370" lon="-119.678490">
        <ele>1493.163</ele>
        <time>2018-12-28T01:14:35Z</time>
      </trkpt>
      <trkpt lat="37.580330" lon="-119.678370">
        <ele>1490.532</ele>
        <time>2018-12-28T01:14:55Z</time>
      </trkpt>
      <trkpt lat="37.580300" lon="-119.678310">
        <ele>1489.684</ele>
        <time>2018-12-28T01:15:15Z</time>
      </trkpt>
      <trkpt lat="37.580260" lon="-119.678240">
        <ele>1488.907</ele>
        <time>2018-12-28T01:15:35Z</time>
      </trkpt>
      <trkpt lat="37.580180" lon="-119.678140">
        <ele>1489.917</ele>
        <time>2018-12-28T01:15:55Z</time>
      </trkpt>
      <trkpt lat="37.580110" lon="-119.678080">
        <ele>1491.208</ele>
        <time>2018-12-28T01:16:15Z</time>
      </trkpt>
      <trkpt lat="37.579990" lon="-119.677990">
        <ele>1493.251</ele>
        <time>2018-12-28T01:16:35Z</time>
      </trkpt>
      <trkpt lat="37.579900" lon="-119.677940">
        <ele>1494.899</ele>
        <time>2018-12-28T01:16:55Z</time>
      </trkpt>
      <trkpt lat="37.579830" lon="-119.677920">
        <ele>1495.714</ele>
        <time>2018-12-28T01:17:15Z</time>
      </trkpt>
      <trkpt lat="37.579750" lon="-119.677900">
        <ele>1496.394</ele>
        <time>2018-12-28T01:17:35Z</time>
      </trkpt>
      <trkpt lat="37.579670" lon="-119.677890">
        <ele>1496.718</ele>
        <time>2018-12-28T01:17:55Z</time>
      </trkpt>
      <trkpt lat="37.579590" lon="-119.677890">
        <ele>1496.898</ele>
        <time>2018-12-28T01:18:15Z</time>
      </trkpt>
      <trkpt lat="37.579360" lon="-119.677940">
        <ele>1495.754</ele>
        <time>2018-12-28T01:18:35Z</time>
      </trkpt>
      <trkpt lat="37.578620" lon="-119.678190">
        <ele>1487.943</ele>
        <time>2018-12-28T01:18:55Z</time>
      </trkpt>
      <trkpt lat="37.578470" lon="-119.678230">
        <ele>1485.047</ele>
        <time>2018-12-28T01:19:15Z</time>
      </trkpt>
      <trkpt lat="37.578350" lon="-119.678240">
        <ele>1484.529</ele>
        <time>2018-12-28T01:19:35Z</time>
      </trkpt>
      <trkpt lat="37.578220" lon="-119.678240">
        <ele>1484.321</ele>
        <time>2018-12-28T01:19:55Z</time>
      </trkpt>
      <trkpt lat="37.578050" lon="-119.678230">
        <ele>1484.008</ele>
        <time>2018-12-28T01:20:15Z</time>
      </trkpt>
      <trkpt lat="37.577870" lon="-119.678220">
        <ele>1483.277</ele>
        <time>2018-12-28T01:20:35Z</time>
      </trkpt>
      <trkpt lat="37.577800" lon="-119.678210">
        <ele>1482.635</ele>
        <time>2018-12-28T01:20:55Z</time>
      </trkpt>
      <trkpt lat="37.577740" lon="-119.678190">
        <ele>1482.570</ele>
        <time>2018-12-28T01:21:15Z</time>
      </trkpt>
      <trkpt lat="37.577680" lon="-119.678160">
        <ele>1482.630</ele>
        <time>2018-12-28T01:21:35Z</time>
      </trkpt>
      <trkpt lat="37.577610" lon="-119.678110">
        <ele>1482.534</ele>
        <time>2018-12-28T01:21:55Z</time>
      </trkpt>
      <trkpt lat="37.577420" lon="-119.677980">
        <ele>1478.054</ele>
        <time>2018-12-28T01:22:15Z</time>
      </trkpt>
      <trkpt lat="37.577340" lon="-119.677940">
        <ele>1475.880</ele>
        <time>2018-12-28T01:22:35Z</time>
      </trkpt>
      <trkpt lat="37.577270" lon="-119.677920">
        <ele>1475.989</ele>
        <time>2018-12-28T01:22:55Z</time>
      </trkpt>
      <trkpt lat="37.577190" lon="-119.677920">
        <ele>1475.984</ele>
        <time>2018-12-28T01:23:15Z</time>
      </trkpt>
      <trkpt lat="37.577110" lon="-119.677940">
        <ele>1475.607</ele>
        <time>2018-12-28T01:23:35Z</time>
      </trkpt>
      <trkpt lat="37.577040" lon="-119.677970">
        <ele>1475.917</ele>
        <time>2018-12-28T01:23:55Z</time>
      </trkpt>
      <trkpt lat="37.576970" lon="-119.678010">
        <ele>1476.508</ele>
        <time>2018-12-28T01:24:15Z</time>
      </trkpt>
      <trkpt lat="37.576930" lon="-119.678050">
        <ele>1476.321</ele>
        <time>2018-12-28T01:24:35Z</time>
      </trkpt>
      <trkpt lat="37.576900" lon="-119.678100">
        <ele>1475.729</ele>
        <time>2018-12-28T01:24:55Z</time>
      </trkpt>
      <trkpt lat="37.576860" lon="-119.678160">
        <ele>1474.844</ele>
        <time>2018-12-28T01:25:15Z</time>
      </trkpt>
      <trkpt lat="37.576810" lon="-119.678340">
        <ele>1472.864</ele>
        <time>2018-12-28T01:25:35Z</time>
      </trkpt>
      <trkpt lat="37.576720" lon="-119.678650">
        <ele>1470.698</ele>
        <time>2018-12-28T01:25:55Z</time>
      </trkpt>
      <trkpt lat="37.576660" lon="-119.678790">
        <ele>1469.488</ele>
        <time>2018-12-28T01:26:15Z</time>
      </trkpt>
      <trkpt lat="37.576600" lon="-119.678900">
        <ele>1468.464</ele>
        <time>2018-12-28T01:26:35Z</time>
      </trkpt>
      <trkpt lat="37.576550" lon="-119.678960">
        <ele>1468.143</ele>
        <time>2018-12-28T01:26:55Z</time>
      </trkpt>
      <trkpt lat="37.576510" lon="-119.679010">
        <ele>1467.818</ele>
        <time>2018-12-28T01:27:15Z</time>
      </trkpt>
      <trkpt lat="37.576440" lon="-119.679060">
        <ele>1467.798</ele>
        <time>2018-12-28T01:27:35Z</time>
      </trkpt>
      <trkpt lat="37.576360" lon="-119.679110">
        <ele>1467.717</ele>
        <time>2018-12-28T01:27:55Z</time>
      </trkpt>
      <trkpt lat="37.576250" lon="-119.679160">
        <ele>1468.208</ele>
        <time>2018-12-28T01:28:15Z</time>
      </trkpt>
      <trkpt lat="37.576000" lon="-119.679260">
        <ele>1466.964</ele>
        <time>2018-12-28T01:28:35Z</time>
      </trkpt>
      <trkpt lat="37.575820" lon="-119.679340">
        <ele>1462.672</ele>
        <time>2018-12-28T01:28:55Z</time>
      </trkpt>
      <trkpt lat="37.575740" lon="-119.679360">
        <ele>1460.957</ele>
        <time>2018-12-28T01:29:15Z</time>
      </trkpt>
      <trkpt lat="37.575670" lon="-119.679360">
        <ele>1460.417</ele>
        <time>2018-12-28T01:29:35Z</time>
      </trkpt>
      <trkpt lat="37.575520" lon="-119.679360">
        <ele>1461.341</ele>
        <time>2018-12-28T01:29:55Z</time>
      </trkpt>
      <trkpt lat="37.575380" lon="-119.679360">
        <ele>1462.191</ele>
        <time>2018-12-28T01:30:15Z</time>
      </trkpt>
      <trkpt lat="37.575310" lon="-119.679370">
        <ele>1462.257</ele>
        <time>2018-12-28T01:30:35Z</time>
      </trkpt>
      <trkpt lat="37.575240" lon="-119.679400">
        <ele>1462.056</ele>
        <time>2018-12-28T01:30:55Z</time>
      </trkpt>
      <trkpt lat="37.575180" lon="-119.679440">
        <ele>1461.617</ele>
        <time>2018-12-28T01:31:15Z</time>
      </trkpt>
      <trkpt lat="37.575140" lon="-119.679490">
        <ele>1461.087</ele>
        <time>2018-12-28T01:31:35Z</time>
      </trkpt>
      <trkpt lat="37.575100" lon="-119.679520">
        <ele>1460.715</ele>
        <time>2018-12-28T01:31:55Z</time>
      </trkpt>
      <trkpt lat="37.575080" lon="-119.679560">
        <ele>1460.208</ele>
        <time>2018-12-28T01:32:15Z</time>
      </trkpt>
      <trkpt lat="37.575060" lon="-119.679610">
        <ele>1459.994</ele>
        <time>2018-12-28T01:32:35Z</time>
      </trkpt>
      <trkpt lat="37.575040" lon="-119.679680">
        <ele>1459.832</ele>
        <time>2018-12-28T01:32:55Z</time>
      </trkpt>
      <trkpt lat="37.575030" lon="-119.679740">
        <ele>1459.857</ele>
        <time>2018-12-28T01:33:15Z</time>
      </trkpt>
      <trkpt lat="37.575030" lon="-119.679810">
        <ele>1459.677</ele>
        <time>2018-12-28T01:33:35Z</time>
      </trkpt>
      <trkpt lat="37.575050" lon="-119.679890">
        <ele>1459.521</ele>
        <time>2018-12-28T01:33:55Z</time>
      </trkpt>
      <trkpt lat="37.575070" lon="-119.679960">
        <ele>1459.961</ele>
        <time>2018-12-28T01:34:15Z</time>
      </trkpt>
      <trkpt lat="37.575100" lon="-119.680010">
        <ele>1460.117</ele>
        <time>2018-12-28T01:34:35Z</time>
      </trkpt>
      <trkpt lat="37.575140" lon="-119.680060">
        <ele>1460.356</ele>
        <time>2018-12-28T01:34:55Z</time>
      </trkpt>
      <trkpt lat="37.575190" lon="-119.680100">
        <ele>1460.316</ele>
        <time>2018-12-28T01:35:15Z</time>
      </trkpt>
      <trkpt lat="37.575260" lon="-119.680130">
        <ele>1460.276</ele>
        <time>2018-12-28T01:35:35Z</time>
      </trkpt>
      <trkpt lat="37.575320" lon="-119.680140">
        <ele>1459.913</ele>
        <time>2018-12-28T01:35:55Z</time>
      </trkpt>
      <trkpt lat="37.575380" lon="-119.680150">
        <ele>1459.608</ele>
        <time>2018-12-28T01:36:15Z</time>
      </trkpt>
      <trkpt lat="37.575440" lon="-119.680150">
        <ele>1459.124</ele>
        <time>2018-12-28T01:36:35Z</time>
      </trkpt>
      <trkpt lat="37.575640" lon="-119.680120">
        <ele>1456.672</ele>
        <time>2018-12-28T01:36:55Z</time>
      </trkpt>
      <trkpt lat="37.575770" lon="-119.680120">
        <ele>1455.437</ele>
        <time>2018-12-28T01:37:15Z</time>
      </trkpt>
      <trkpt lat="37.575870" lon="-119.680120">
        <ele>1454.587</ele>
        <time>2018-12-28T01:37:35Z</time>
      </trkpt>
      <trkpt lat="37.575980" lon="-119.680130">
        <ele>1453.661</ele>
        <time>2018-12-28T01:37:55Z</time>
      </trkpt>
      <trkpt lat="37.576090" lon="-119.680180">
        <ele>1452.641</ele>
        <time>2018-12-28T01:38:15Z</time>
      </trkpt>
      <trkpt lat="37.576180" lon="-119.680240">
        <ele>1451.547</ele>
        <time>2018-12-28T01:38:35Z</time>
      </trkpt>
      <trkpt lat="37.576230" lon="-119.680300">
        <ele>1450.886</ele>
        <time>2018-12-28T01:38:55Z</time>
      </trkpt>
      <trkpt lat="37.576290" lon="-119.680360">
        <ele>1449.728</ele>
        <time>2018-12-28T01:39:15Z</time>
      </trkpt>
      <trkpt lat="37.576350" lon="-119.680470">
        <ele>1448.789</ele>
        <time>2018-12-28T01:39:35Z</time>
      </trkpt>
      <trkpt lat="37.576430" lon="-119.680630">
        <ele>1447.217</ele>
        <time>2018-12-28T01:39:55Z</time>
      </trkpt>
      <trkpt lat="37.576470" lon="-119.680750">
        <ele>1446.008</ele>
        <time>2018-12-28T01:40:15Z</time>
      </trkpt>
      <trkpt lat="37.576500" lon="-119.680890">
        <ele>1444.755</ele>
        <time>2018-12-28T01:40:35Z</time>
      </trkpt>
      <trkpt lat="37.576500" lon="-119.681020">
        <ele>1444.363</ele>
        <time>2018-12-28T01:40:55Z</time>
      </trkpt>
      <trkpt lat="37.576490" lon="-119.681160">
        <ele>1444.128</ele>
        <time>2018-12-28T01:41:15Z</time>
      </trkpt>
      <trkpt lat="37.576400" lon="-119.682150">
        <ele>1440.638</ele>
        <time>2018-12-28T01:41:35Z</time>
      </trkpt>
      <trkpt lat="37.576390" lon="-119.682250">
        <ele>1440.122</ele>
        <time>2018-12-28T01:41:55Z</time>
      </trkpt>
      <trkpt lat="37.576370" lon="-119.682330">
        <ele>1440.482</ele>
        <time>2018-12-28T01:42:15Z</time>
      </trkpt>
      <trkpt lat="37.576350" lon="-119.682410">
        <ele>1440.768</ele>
        <time>2018-12-28T01:42:35Z</time>
      </trkpt>
      <trkpt lat="37.576330" lon="-119.682480">
        <ele>1441.247</ele>
        <time>2018-12-28T01:42:55Z</time>
      </trkpt>
      <trkpt lat="37.576220" lon="-119.682720">
        <ele>1444.654</ele>
        <time>2018-12-28T01:43:15Z</time>
      </trkpt>
      <trkpt lat="37.576180" lon="-119.682820">
        <ele>1444.956</ele>
        <time>2018-12-28T01:43:35Z</time>
      </trkpt>
      <trkpt lat="37.576150" lon="-119.682910">
        <ele>1445.011</ele>
        <time>2018-12-28T01:43:55Z</time>
      </trkpt>
      <trkpt lat="37.576130" lon="-119.683000">
        <ele>1444.408</ele>
        <time>2018-12-28T01:44:15Z</time>
      </trkpt>
      <trkpt lat="37.576120" lon="-119.683100">
        <ele>1443.358</ele>
        <time>2018-12-28T01:44:35Z</time>
      </trkpt>
      <trkpt lat="37.576110" lon="-119.683200">
        <ele>1442.236</ele>
        <time>2018-12-28T01:44:55Z</time>
      </trkpt>
      <trkpt lat="37.576120" lon="-119.683310">
        <ele>1440.211</ele>
        <time>2018-12-28T01:45:15Z</time>
      </trkpt>
      <trkpt lat="37.576150" lon="-119.683490">
        <ele>1436.831</ele>
        <time>2018-12-28T01:45:35Z</time>
      </trkpt>
      <trkpt lat="37.576270" lon="-119.683930">
        <ele>1433.165</ele>
        <time>2018-12-28T01:45:55Z</time>
      </trkpt>
      <trkpt lat="37.576300" lon="-119.684150">
        <ele>1432.395</ele>
        <time>2018-12-28T01:46:15Z</time>
      </trkpt>
      <trkpt lat="37.576290" lon="-119.684330">
        <ele>1432.511</ele>
        <time>2018-12-28T01:46:35Z</time>
      </trkpt>
      <trkpt lat="37.576270" lon="-119.684450">
        <ele>1432.460</ele>
        <time>2018-12-28T01:46:55Z</time>
      </trkpt>
      <trkpt lat="37.576120" lon="-119.684810">
        <ele>1433.564</ele>
        <time>2018-12-28T01:47:15Z</time>
      </trkpt>
      <trkpt lat="37.576050" lon="-119.684970">
        <ele>1433.706</ele>
        <time>2018-12-28T01:47:35Z</time>
      </trkpt>
      <trkpt lat="37.575960" lon="-119.685210">
        <ele>1434.116</ele>
        <time>2018-12-28T01:47:55Z</time>
      </trkpt>
      <trkpt lat="37.575930" lon="-119.685330">
        <ele>1434.308</ele>
        <time>2018-12-28T01:48:15Z</time>
      </trkpt>
      <trkpt lat="37.575930" lon="-119.685510">
        <ele>1433.659</ele>
        <time>2018-12-28T01:48:35Z</time>
      </trkpt>
      <trkpt lat="37.575950" lon="-119.685740">
        <ele>1432.997</ele>
        <time>2018-12-28T01:48:55Z</time>
      </trkpt>
      <trkpt lat="37.576020" lon="-119.686310">
        <ele>1428.562</ele>
        <time>2018-12-28T01:49:15Z</time>
      </trkpt>
      <trkpt lat="37.576030" lon="-119.686540">
        <ele>1425.212</ele>
        <time>2018-12-28T01:49:35Z</time>
      </trkpt>
      <trkpt lat="37.575990" lon="-119.686830">
        <ele>1422.096</ele>
        <time>2018-12-28T01:49:55Z</time>
      </trkpt>
      <trkpt lat="37.575970" lon="-119.686910">
        <ele>1421.336</ele>
        <time>2018-12-28T01:50:15Z</time>
      </trkpt>
      <trkpt lat="37.575900" lon="-119.687060">
        <ele>1421.262</ele>
        <time>2018-12-28T01:50:35Z</time>
      </trkpt>
      <trkpt lat="37.575790" lon="-119.687240">
        <ele>1420.091</ele>
        <time>2018-12-28T01:50:55Z</time>
      </trkpt>
      <trkpt lat="37.575630" lon="-119.687410">
        <ele>1419.765</ele>
        <time>2018-12-28T01:51:15Z</time>
      </trkpt>
      <trkpt lat="37.575290" lon="-119.687700">
        <ele>1415.768</ele>
        <time>2018-12-28T01:51:35Z</time>
      </trkpt>
      <trkpt lat="37.574970" lon="-119.687950">
        <ele>1412.414</ele>
        <time>2018-12-28T01:51:55Z</time>
      </trkpt>
      <trkpt lat="37.574480" lon="-119.688380">
        <ele>1410.008</ele>
        <time>2018-12-28T01:52:15Z</time>
      </trkpt>
      <trkpt lat="37.574070" lon="-119.688700">
        <ele>1410.019</ele>
        <time>2018-12-28T01:52:35Z</time>
      </trkpt>
      <trkpt lat="37.573870" lon="-119.688840">
        <ele>1410.177</ele>
        <time>2018-12-28T01:52:55Z</time>
      </trkpt>
      <trkpt lat="37.573530" lon="-119.689100">
        <ele>1405.342</ele>
        <time>2018-12-28T01:53:15Z</time>
      </trkpt>
      <trkpt lat="37.573300" lon="-119.689380">
        <ele>1401.572</ele>
        <time>2018-12-28T01:53:35Z</time>
      </trkpt>
      <trkpt lat="37.573210" lon="-119.689520">
        <ele>1400.166</ele>
        <time>2018-12-28T01:53:55Z</time>
      </trkpt>
      <trkpt lat="37.573140" lon="-119.689620">
        <ele>1399.496</ele>
        <time>2018-12-28T01:54:15Z</time>
      </trkpt>
      <trkpt lat="37.572980" lon="-119.689780">
        <ele>1398.832</ele>
        <time>2018-12-28T01:54:35Z</time>
      </trkpt>
      <trkpt lat="37.572660" lon="-119.690000">
        <ele>1398.241</ele>
        <time>2018-12-28T01:54:55Z</time>
      </trkpt>
      <trkpt lat="37.572340" lon="-119.690180">
        <ele>1397.786</ele>
        <time>2018-12-28T01:55:15Z</time>
      </trkpt>
      <trkpt lat="37.572210" lon="-119.690230">
        <ele>1398.560</ele>
        <time>2018-12-28T01:55:35Z</time>
      </trkpt>
      <trkpt lat="37.571900" lon="-119.690290">
        <ele>1399.126</ele>
        <time>2018-12-28T01:55:55Z</time>
      </trkpt>
      <trkpt lat="37.571780" lon="-119.690340">
        <ele>1398.108</ele>
        <time>2018-12-28T01:56:15Z</time>
      </trkpt>
      <trkpt lat="37.571610" lon="-119.690450">
        <ele>1396.311</ele>
        <time>2018-12-28T01:56:35Z</time>
      </trkpt>
      <trkpt lat="37.571460" lon="-119.690560">
        <ele>1395.649</ele>
        <time>2018-12-28T01:56:55Z</time>
      </trkpt>
      <trkpt lat="37.571240" lon="-119.690790">
        <ele>1394.814</ele>
        <time>2018-12-28T01:57:15Z</time>
      </trkpt>
      <trkpt lat="37.571050" lon="-119.690940">
        <ele>1394.114</ele>
        <time>2018-12-28T01:57:35Z</time>
      </trkpt>
      <trkpt lat="37.570590" lon="-119.691210">
        <ele>1389.488</ele>
        <time>2018-12-28T01:57:55Z</time>
      </trkpt>
      <trkpt lat="37.570280" lon="-119.691390">
        <ele>1388.278</ele>
        <time>2018-12-28T01:58:15Z</time>
      </trkpt>
      <trkpt lat="37.569550" lon="-119.691660">
        <ele>1386.714</ele>
        <time>2018-12-28T01:58:35Z</time>
      </trkpt>
      <trkpt lat="37.568820" lon="-119.691920">
        <ele>1385.743</ele>
        <time>2018-12-28T01:58:55Z</time>
      </trkpt>
      <trkpt lat="37.568520" lon="-119.691990">
        <ele>1385.097</ele>
        <time>2018-12-28T01:59:15Z</time>
      </trkpt>
      <trkpt lat="37.568400" lon="-119.691990">
        <ele>1385.223</ele>
        <time>2018-12-28T01:59:35Z</time>
      </trkpt>
      <trkpt lat="37.568210" lon="-119.691960">
        <ele>1385.725</ele>
        <time>2018-12-28T01:59:55Z</time>
      </trkpt>
      <trkpt lat="37.567910" lon="-119.691880">
        <ele>1385.108</ele>
        <time>2018-12-28T02:00:15Z</time>
      </trkpt>
      <trkpt lat="37.567670" lon="-119.691880">
        <ele>1382.462</ele>
        <time>2018-12-28T02:00:35Z</time>
      </trkpt>
      <trkpt lat="37.567480" lon="-119.691910">
        <ele>1380.260</ele>
        <time>2018-12-28T02:00:55Z</time>
      </trkpt>
      <trkpt lat="37.567020" lon="-119.692140">
        <ele>1375.935</ele>
        <time>2018-12-28T02:01:15Z</time>
      </trkpt>
      <trkpt lat="37.566810" lon="-119.692230">
        <ele>1375.455</ele>
        <time>2018-12-28T02:01:35Z</time>
      </trkpt>
      <trkpt lat="37.566620" lon="-119.692290">
        <ele>1375.989</ele>
        <time>2018-12-28T02:01:55Z</time>
      </trkpt>
      <trkpt lat="37.565850" lon="-119.692460">
        <ele>1376.839</ele>
        <time>2018-12-28T02:02:15Z</time>
      </trkpt>
      <trkpt lat="37.565320" lon="-119.692610">
        <ele>1376.965</ele>
        <time>2018-12-28T02:02:35Z</time>
      </trkpt>
      <trkpt lat="37.565090" lon="-119.692690">
        <ele>1376.354</ele>
        <time>2018-12-28T02:02:55Z</time>
      </trkpt>
      <trkpt lat="37.564970" lon="-119.692730">
        <ele>1376.198</ele>
        <time>2018-12-28T02:03:15Z</time>
      </trkpt>
      <trkpt lat="37.564530" lon="-119.692940">
        <ele>1373.515</ele>
        <time>2018-12-28T02:03:35Z</time>
      </trkpt>
      <trkpt lat="37.564120" lon="-119.693140">
        <ele>1370.726</ele>
        <time>2018-12-28T02:03:55Z</time>
      </trkpt>
      <trkpt lat="37.563840" lon="-119.693290">
        <ele>1366.208</ele>
        <time>2018-12-28T02:04:15Z</time>
      </trkpt>
      <trkpt lat="37.563580" lon="-119.693380">
        <ele>1364.362</ele>
        <time>2018-12-28T02:04:35Z</time>
      </trkpt>
      <trkpt lat="37.563440" lon="-119.693390">
        <ele>1364.470</ele>
        <time>2018-12-28T02:04:55Z</time>
      </trkpt>
      <trkpt lat="37.563350" lon="-119.693390">
        <ele>1364.455</ele>
        <time>2018-12-28T02:05:15Z</time>
      </trkpt>
      <trkpt lat="37.563290" lon="-119.693380">
        <ele>1364.545</ele>
        <time>2018-12-28T02:05:35Z</time>
      </trkpt>
      <trkpt lat="37.563210" lon="-119.693360">
        <ele>1364.869</ele>
        <time>2018-12-28T02:05:55Z</time>
      </trkpt>
      <trkpt lat="37.563160" lon="-119.693330">
        <ele>1364.889</ele>
        <time>2018-12-28T02:06:15Z</time>
      </trkpt>
      <trkpt lat="37.563100" lon="-119.693300">
        <ele>1364.685</ele>
        <time>2018-12-28T02:06:35Z</time>
      </trkpt>
      <trkpt lat="37.563050" lon="-119.693260">
        <ele>1364.634</ele>
        <time>2018-12-28T02:06:55Z</time>
      </trkpt>
      <trkpt lat="37.563000" lon="-119.693220">
        <ele>1364.531</ele>
        <time>2018-12-28T02:07:15Z</time>
      </trkpt>
      <trkpt lat="37.562950" lon="-119.693170">
        <ele>1364.661</ele>
        <time>2018-12-28T02:07:35Z</time>
      </trkpt>
      <trkpt lat="37.562900" lon="-119.693120">
        <ele>1364.207</ele>
        <time>2018-12-28T02:07:55Z</time>
      </trkpt>
      <trkpt lat="37.562840" lon="-119.693050">
        <ele>1363.208</ele>
        <time>2018-12-28T02:08:15Z</time>
      </trkpt>
      <trkpt lat="37.562800" lon="-119.692960">
        <ele>1363.096</ele>
        <time>2018-12-28T02:08:35Z</time>
      </trkpt>
      <trkpt lat="37.562760" lon="-119.692890">
        <ele>1362.774</ele>
        <time>2018-12-28T02:08:55Z</time>
      </trkpt>
      <trkpt lat="37.562730" lon="-119.692830">
        <ele>1362.629</ele>
        <time>2018-12-28T02:09:15Z</time>
      </trkpt>
      <trkpt lat="37.562700" lon="-119.692750">
        <ele>1362.689</ele>
        <time>2018-12-28T02:09:35Z</time>
      </trkpt>
      <trkpt lat="37.562660" lon="-119.692640">
        <ele>1362.623</ele>
        <time>2018-12-28T02:09:55Z</time>
      </trkpt>
      <trkpt lat="37.562630" lon="-119.692470">
        <ele>1363.443</ele>
        <time>2018-12-28T02:10:15Z</time>
      </trkpt>
      <trkpt lat="37.562580" lon="-119.692310">
        <ele>1363.069</ele>
        <time>2018-12-28T02:10:35Z</time>
      </trkpt>
      <trkpt lat="37.562530" lon="-119.692140">
        <ele>1362.948</ele>
        <time>2018-12-28T02:10:55Z</time>
      </trkpt>
      <trkpt lat="37.562490" lon="-119.692060">
        <ele>1362.487</ele>
        <time>2018-12-28T02:11:15Z</time>
      </trkpt>
      <trkpt lat="37.562460" lon="-119.691990">
        <ele>1362.642</ele>
        <time>2018-12-28T02:11:35Z</time>
      </trkpt>
      <trkpt lat="37.562420" lon="-119.691930">
        <ele>1362.326</ele>
        <time>2018-12-28T02:11:55Z</time>
      </trkpt>
      <trkpt lat="37.562380" lon="-119.691870">
        <ele>1362.008</ele>
        <time>2018-12-28T02:12:15Z</time>
      </trkpt>
      <trkpt lat="37.562320" lon="-119.691800">
        <ele>1361.561</ele>
        <time>2018-12-28T02:12:35Z</time>
      </trkpt>
      <trkpt lat="37.561900" lon="-119.691320">
        <ele>1353.389</ele>
        <time>2018-12-28T02:12:55Z</time>
      </trkpt>
      <trkpt lat="37.561650" lon="-119.691010">
        <ele>1350.324</ele>
        <time>2018-12-28T02:13:15Z</time>
      </trkpt>
      <trkpt lat="37.561580" lon="-119.690910">
        <ele>1349.444</ele>
        <time>2018-12-28T02:13:35Z</time>
      </trkpt>
      <trkpt lat="37.561510" lon="-119.690790">
        <ele>1348.468</ele>
        <time>2018-12-28T02:13:55Z</time>
      </trkpt>
      <trkpt lat="37.561440" lon="-119.690640">
        <ele>1348.078</ele>
        <time>2018-12-28T02:14:15Z</time>
      </trkpt>
      <trkpt lat="37.561400" lon="-119.690540">
        <ele>1347.464</ele>
        <time>2018-12-28T02:14:35Z</time>
      </trkpt>
      <trkpt lat="37.561370" lon="-119.690420">
        <ele>1347.283</ele>
        <time>2018-12-28T02:14:55Z</time>
      </trkpt>
      <trkpt lat="37.561340" lon="-119.690300">
        <ele>1346.262</ele>
        <time>2018-12-28T02:15:15Z</time>
      </trkpt>
      <trkpt lat="37.561330" lon="-119.690210">
        <ele>1345.783</ele>
        <time>2018-12-28T02:15:35Z</time>
      </trkpt>
      <trkpt lat="37.561330" lon="-119.690100">
        <ele>1345.211</ele>
        <time>2018-12-28T02:15:55Z</time>
      </trkpt>
      <trkpt lat="37.561320" lon="-119.690000">
        <ele>1343.908</ele>
        <time>2018-12-28T02:16:15Z</time>
      </trkpt>
      <trkpt lat="37.561330" lon="-119.689890">
        <ele>1342.949</ele>
        <time>2018-12-28T02:16:35Z</time>
      </trkpt>
      <trkpt lat="37.561330" lon="-119.689840">
        <ele>1342.057</ele>
        <time>2018-12-28T02:16:55Z</time>
      </trkpt>
      <trkpt lat="37.561350" lon="-119.689740">
        <ele>1339.912</ele>
        <time>2018-12-28T02:17:15Z</time>
      </trkpt>
      <trkpt lat="37.561390" lon="-119.689540">
        <ele>1336.892</ele>
        <time>2018-12-28T02:17:35Z</time>
      </trkpt>
      <trkpt lat="37.561490" lon="-119.689180">
        <ele>1336.746</ele>
        <time>2018-12-28T02:17:55Z</time>
      </trkpt>
      <trkpt lat="37.561610" lon="-119.688690">
        <ele>1335.456</ele>
        <time>2018-12-28T02:18:15Z</time>
      </trkpt>
      <trkpt lat="37.561690" lon="-119.688320">
        <ele>1334.832</ele>
        <time>2018-12-28T02:18:35Z</time>
      </trkpt>
      <trkpt lat="37.561710" lon="-119.688160">
        <ele>1335.491</ele>
        <time>2018-12-28T02:18:55Z</time>
      </trkpt>
      <trkpt lat="37.561710" lon="-119.688090">
        <ele>1335.639</ele>
        <time>2018-12-28T02:19:15Z</time>
      </trkpt>
      <trkpt lat="37.561700" lon="-119.688000">
        <ele>1335.301</ele>
        <time>2018-12-28T02:19:35Z</time>
      </trkpt>
      <trkpt lat="37.561700" lon="-119.687950">
        <ele>1335.521</ele>
        <time>2018-12-28T02:19:55Z</time>
      </trkpt>
      <trkpt lat="37.561690" lon="-119.687900">
        <ele>1334.908</ele>
        <time>2018-12-28T02:20:15Z</time>
      </trkpt>
      <trkpt lat="37.561680" lon="-119.687860">
        <ele>1334.066</ele>
        <time>2018-12-28T02:20:35Z</time>
      </trkpt>
      <trkpt lat="37.561660" lon="-119.687790">
        <ele>1332.354</ele>
        <time>2018-12-28T02:20:55Z</time>
      </trkpt>
      <trkpt lat="37.561630" lon="-119.687710">
        <ele>1329.839</ele>
        <time>2018-12-28T02:21:15Z</time>
      </trkpt>
      <trkpt lat="37.561590" lon="-119.687640">
        <ele>1326.829</ele>
        <time>2018-12-28T02:21:35Z</time>
      </trkpt>
      <trkpt lat="37.561550" lon="-119.687600">
        <ele>1325.083</ele>
        <time>2018-12-28T02:21:55Z</time>
      </trkpt>
      <trkpt lat="37.561500" lon="-119.687550">
        <ele>1323.693</ele>
        <time>2018-12-28T02:22:15Z</time>
      </trkpt>
      <trkpt lat="37.561440" lon="-119.687500">
        <ele>1323.099</ele>
        <time>2018-12-28T02:22:35Z</time>
      </trkpt>
      <trkpt lat="37.561370" lon="-119.687450">
        <ele>1322.968</ele>
        <time>2018-12-28T02:22:55Z</time>
      </trkpt>
      <trkpt lat="37.561310" lon="-119.687420">
        <ele>1323.083</ele>
        <time>2018-12-28T02:23:15Z</time>
      </trkpt>
      <trkpt lat="37.561250" lon="-119.687410">
        <ele>1322.625</ele>
        <time>2018-12-28T02:23:35Z</time>
      </trkpt>
      <trkpt lat="37.561190" lon="-119.687400">
        <ele>1323.017</ele>
        <time>2018-12-28T02:23:55Z</time>
      </trkpt>
      <trkpt lat="37.561150" lon="-119.687390">
        <ele>1323.408</ele>
        <time>2018-12-28T02:24:15Z</time>
      </trkpt>
      <trkpt lat="37.561100" lon="-119.687390">
        <ele>1323.351</ele>
        <time>2018-12-28T02:24:35Z</time>
      </trkpt>
      <trkpt lat="37.561050" lon="-119.687400">
        <ele>1322.919</ele>
        <time>2018-12-28T02:24:55Z</time>
      </trkpt>
      <trkpt lat="37.560790" lon="-119.687460">
        <ele>1321.814</ele>
        <time>2018-12-28T02:25:15Z</time>
      </trkpt>
      <trkpt lat="37.560630" lon="-119.687500">
        <ele>1321.834</ele>
        <time>2018-12-28T02:25:35Z</time>
      </trkpt>
      <trkpt lat="37.560560" lon="-119.687510">
        <ele>1321.958</ele>
        <time>2018-12-28T02:25:55Z</time>
      </trkpt>
      <trkpt lat="37.560460" lon="-119.687510">
        <ele>1322.568</ele>
        <time>2018-12-28T02:26:15Z</time>
      </trkpt>
      <trkpt lat="37.560360" lon="-119.687520">
        <ele>1320.934</ele>
        <time>2018-12-28T02:26:35Z</time>
      </trkpt>
      <trkpt lat="37.560250" lon="-119.687520">
        <ele>1317.953</ele>
        <time>2018-12-28T02:26:55Z</time>
      </trkpt>
      <trkpt lat="37.560170" lon="-119.687520">
        <ele>1315.814</ele>
        <time>2018-12-28T02:27:15Z</time>
      </trkpt>
      <trkpt lat="37.560050" lon="-119.687510">
        <ele>1314.654</ele>
        <time>2018-12-28T02:27:35Z</time>
      </trkpt>
      <trkpt lat="37.559910" lon="-119.687480">
        <ele>1314.509</ele>
        <time>2018-12-28T02:27:55Z</time>
      </trkpt>
      <trkpt lat="37.559840" lon="-119.687450">
        <ele>1314.708</ele>
        <time>2018-12-28T02:28:15Z</time>
      </trkpt>
      <trkpt lat="37.559760" lon="-119.687420">
        <ele>1314.324</ele>
        <time>2018-12-28T02:28:35Z</time>
      </trkpt>
      <trkpt lat="37.559700" lon="-119.687390">
        <ele>1314.172</ele>
        <time>2018-12-28T02:28:55Z</time>
      </trkpt>
      <trkpt lat="37.559620" lon="-119.687330">
        <ele>1314.697</ele>
        <time>2018-12-28T02:29:15Z</time>
      </trkpt>
      <trkpt lat="37.559480" lon="-119.687240">
        <ele>1313.787</ele>
        <time>2018-12-28T02:29:35Z</time>
      </trkpt>
      <trkpt lat="37.559330" lon="-119.687120">
        <ele>1312.911</ele>
        <time>2018-12-28T02:29:55Z</time>
      </trkpt>
      <trkpt lat="37.559230" lon="-119.687060">
        <ele>1313.311</ele>
        <time>2018-12-28T02:30:15Z</time>
      </trkpt>
      <trkpt lat="37.559180" lon="-119.687040">
        <ele>1313.587</ele>
        <time>2018-12-28T02:30:35Z</time>
      </trkpt>
      <trkpt lat="37.559100" lon="-119.687040">
        <ele>1312.496</ele>
        <time>2018-12-28T02:30:55Z</time>
      </trkpt>
      <trkpt lat="37.559040" lon="-119.687030">
        <ele>1312.019</ele>
        <time>2018-12-28T02:31:15Z</time>
      </trkpt>
      <trkpt lat="37.558910" lon="-119.687040">
        <ele>1312.309</ele>
        <time>2018-12-28T02:31:35Z</time>
      </trkpt>
      <trkpt lat="37.558780" lon="-119.687090">
        <ele>1311.419</ele>
        <time>2018-12-28T02:31:55Z</time>
      </trkpt>
      <trkpt lat="37.558510" lon="-119.687220">
        <ele>1309.608</ele>
        <time>2018-12-28T02:32:15Z</time>
      </trkpt>
      <trkpt lat="37.558350" lon="-119.687270">
        <ele>1308.144</ele>
        <time>2018-12-28T02:32:35Z</time>
      </trkpt>
      <trkpt lat="37.558240" lon="-119.687290">
        <ele>1307.442</ele>
        <time>2018-12-28T02:32:55Z</time>
      </trkpt>
      <trkpt lat="37.558150" lon="-119.687280">
        <ele>1306.557</ele>
        <time>2018-12-28T02:33:15Z</time>
      </trkpt>
      <trkpt lat="37.558060" lon="-119.687250">
        <ele>1305.277</ele>
        <time>2018-12-28T02:33:35Z</time>
      </trkpt>
      <trkpt lat="37.558000" lon="-119.687230">
        <ele>1304.391</ele>
        <time>2018-12-28T02:33:55Z</time>
      </trkpt>
      <trkpt lat="37.557940" lon="-119.687200">
        <ele>1303.781</ele>
        <time>2018-12-28T02:34:15Z</time>
      </trkpt>
      <trkpt lat="37.557850" lon="-119.687130">
        <ele>1303.267</ele>
        <time>2018-12-28T02:34:35Z</time>
      </trkpt>
      <trkpt lat="37.557730" lon="-119.687030">
        <ele>1303.396</ele>
        <time>2018-12-28T02:34:55Z</time>
      </trkpt>
      <trkpt lat="37.557510" lon="-119.686830">
        <ele>1302.015</ele>
        <time>2018-12-28T02:35:15Z</time>
      </trkpt>
      <trkpt lat="37.557390" lon="-119.686740">
        <ele>1301.365</ele>
        <time>2018-12-28T02:35:35Z</time>
      </trkpt>
      <trkpt lat="37.557130" lon="-119.686560">
        <ele>1300.711</ele>
        <time>2018-12-28T02:35:55Z</time>
      </trkpt>
      <trkpt lat="37.556970" lon="-119.686450">
        <ele>1299.708</ele>
        <time>2018-12-28T02:36:15Z</time>
      </trkpt>
      <trkpt lat="37.556900" lon="-119.686390">
        <ele>1299.414</ele>
        <time>2018-12-28T02:36:35Z</time>
      </trkpt>
      <trkpt lat="37.556840" lon="-119.686330">
        <ele>1299.152</ele>
        <time>2018-12-28T02:36:55Z</time>
      </trkpt>
      <trkpt lat="37.556780" lon="-119.686260">
        <ele>1299.157</ele>
        <time>2018-12-28T02:37:15Z</time>
      </trkpt>
      <trkpt lat="37.556730" lon="-119.686210">
        <ele>1298.947</ele>
        <time>2018-12-28T02:37:35Z</time>
      </trkpt>
      <trkpt lat="37.556680" lon="-119.686140">
        <ele>1298.871</ele>
        <time>2018-12-28T02:37:55Z</time>
      </trkpt>
      <trkpt lat="37.556490" lon="-119.685810">
        <ele>1296.791</ele>
        <time>2018-12-28T02:38:15Z</time>
      </trkpt>
      <trkpt lat="37.556190" lon="-119.685230">
        <ele>1290.197</ele>
        <time>2018-12-28T02:38:35Z</time>
      </trkpt>
      <trkpt lat="37.555830" lon="-119.684490">
        <ele>1285.536</ele>
        <time>2018-12-28T02:38:55Z</time>
      </trkpt>
      <trkpt lat="37.555750" lon="-119.684340">
        <ele>1281.664</ele>
        <time>2018-12-28T02:39:15Z</time>
      </trkpt>
      <trkpt lat="37.555680" lon="-119.684220">
        <ele>1279.806</ele>
        <time>2018-12-28T02:39:35Z</time>
      </trkpt>
      <trkpt lat="37.555560" lon="-119.684020">
        <ele>1279.616</ele>
        <time>2018-12-28T02:39:55Z</time>
      </trkpt>
      <trkpt lat="37.555260" lon="-119.683610">
        <ele>1278.908</ele>
        <time>2018-12-28T02:40:15Z</time>
      </trkpt>
      <trkpt lat="37.555160" lon="-119.683450">
        <ele>1279.189</ele>
        <time>2018-12-28T02:40:35Z</time>
      </trkpt>
      <trkpt lat="37.554970" lon="-119.683200">
        <ele>1278.687</ele>
        <time>2018-12-28T02:40:55Z</time>
      </trkpt>
      <trkpt lat="37.554920" lon="-119.683150">
        <ele>1278.332</ele>
        <time>2018-12-28T02:41:15Z</time>
      </trkpt>
      <trkpt lat="37.554880" lon="-119.683120">
        <ele>1277.712</ele>
        <time>2018-12-28T02:41:35Z</time>
      </trkpt>
      <trkpt lat="37.554810" lon="-119.683090">
        <ele>1276.756</ele>
        <time>2018-12-28T02:41:55Z</time>
      </trkpt>
      <trkpt lat="37.554730" lon="-119.683060">
        <ele>1275.556</ele>
        <time>2018-12-28T02:42:15Z</time>
      </trkpt>
      <trkpt lat="37.554560" lon="-119.683010">
        <ele>1272.062</ele>
        <time>2018-12-28T02:42:35Z</time>
      </trkpt>
      <trkpt lat="37.554430" lon="-119.682970">
        <ele>1269.191</ele>
        <time>2018-12-28T02:42:55Z</time>
      </trkpt>
      <trkpt lat="37.554350" lon="-119.682920">
        <ele>1267.793</ele>
        <time>2018-12-28T02:43:15Z</time>
      </trkpt>
      <trkpt lat="37.554260" lon="-119.682850">
        <ele>1268.365</ele>
        <time>2018-12-28T02:43:35Z</time>
      </trkpt>
      <trkpt lat="37.554190" lon="-119.682770">
        <ele>1269.021</ele>
        <time>2018-12-28T02:43:55Z</time>
      </trkpt>
      <trkpt lat="37.554120" lon="-119.682660">
        <ele>1268.108</ele>
        <time>2018-12-28T02:44:15Z</time>
      </trkpt>
      <trkpt lat="37.554060" lon="-119.682520">
        <ele>1267.512</ele>
        <time>2018-12-28T02:44:35Z</time>
      </trkpt>
      <trkpt lat="37.554010" lon="-119.682370">
        <ele>1266.980</ele>
        <time>2018-12-28T02:44:55Z</time>
      </trkpt>
      <trkpt lat="37.553980" lon="-119.682210">
        <ele>1267.665</ele>
        <time>2018-12-28T02:45:15Z</time>
      </trkpt>
      <trkpt lat="37.553970" lon="-119.682040">
        <ele>1268.865</ele>
        <time>2018-12-28T02:45:35Z</time>
      </trkpt>
      <trkpt lat="37.553970" lon="-119.681870">
        <ele>1269.169</ele>
        <time>2018-12-28T02:45:55Z</time>
      </trkpt>
      <trkpt lat="37.553960" lon="-119.681650">
        <ele>1268.329</ele>
        <time>2018-12-28T02:46:15Z</time>
      </trkpt>
      <trkpt lat="37.553950" lon="-119.681560">
        <ele>1267.795</ele>
        <time>2018-12-28T02:46:35Z</time>
      </trkpt>
      <trkpt lat="37.553920" lon="-119.681460">
        <ele>1266.724</ele>
        <time>2018-12-28T02:46:55Z</time>
      </trkpt>
      <trkpt lat="37.553860" lon="-119.681300">
        <ele>1265.229</ele>
        <time>2018-12-28T02:47:15Z</time>
      </trkpt>
      <trkpt lat="37.553780" lon="-119.681170">
        <ele>1264.900</ele>
        <time>2018-12-28T02:47:35Z</time>
      </trkpt>
      <trkpt lat="37.553560" lon="-119.680860">
        <ele>1264.420</ele>
        <time>2018-12-28T02:47:55Z</time>
      </trkpt>
      <trkpt lat="37.553200" lon="-119.680330">
        <ele>1261.008</ele>
        <time>2018-12-28T02:48:15Z</time>
      </trkpt>
      <trkpt lat="37.552960" lon="-119.679960">
        <ele>1255.615</ele>
        <time>2018-12-28T02:48:35Z</time>
      </trkpt>
      <trkpt lat="37.552760" lon="-119.679640">
        <ele>1255.733</ele>
        <time>2018-12-28T02:48:55Z</time>
      </trkpt>
      <trkpt lat="37.552620" lon="-119.679400">
        <ele>1255.568</ele>
        <time>2018-12-28T02:49:15Z</time>
      </trkpt>
      <trkpt lat="37.552510" lon="-119.679220">
        <ele>1255.658</ele>
        <time>2018-12-28T02:49:35Z</time>
      </trkpt>
      <trkpt lat="37.552460" lon="-119.679150">
        <ele>1254.972</ele>
        <time>2018-12-28T02:49:55Z</time>
      </trkpt>
      <trkpt lat="37.552400" lon="-119.679070">
        <ele>1253.472</ele>
        <time>2018-12-28T02:50:15Z</time>
      </trkpt>
      <trkpt lat="37.552320" lon="-119.678990">
        <ele>1252.188</ele>
        <time>2018-12-28T02:50:35Z</time>
      </trkpt>
      <trkpt lat="37.552230" lon="-119.678930">
        <ele>1252.267</ele>
        <time>2018-12-28T02:50:55Z</time>
      </trkpt>
      <trkpt lat="37.552180" lon="-119.678880">
        <ele>1252.996</ele>
        <time>2018-12-28T02:51:15Z</time>
      </trkpt>
      <trkpt lat="37.552080" lon="-119.678840">
        <ele>1253.331</ele>
        <time>2018-12-28T02:51:35Z</time>
      </trkpt>
      <trkpt lat="37.551920" lon="-119.678790">
        <ele>1253.724</ele>
        <time>2018-12-28T02:51:55Z</time>
      </trkpt>
      <trkpt lat="37.551680" lon="-119.678720">
        <ele>1253.008</ele>
        <time>2018-12-28T02:52:15Z</time>
      </trkpt>
      <trkpt lat="37.551450" lon="-119.678630">
        <ele>1251.312</ele>
        <time>2018-12-28T02:52:35Z</time>
      </trkpt>
      <trkpt lat="37.551250" lon="-119.678550">
        <ele>1247.820</ele>
        <time>2018-12-28T02:52:55Z</time>
      </trkpt>
      <trkpt lat="37.551160" lon="-119.678510">
        <ele>1245.885</ele>
        <time>2018-12-28T02:53:15Z</time>
      </trkpt>
      <trkpt lat="37.551100" lon="-119.678470">
        <ele>1244.785</ele>
        <time>2018-12-28T02:53:35Z</time>
      </trkpt>
      <trkpt lat="37.551010" lon="-119.678390">
        <ele>1243.959</ele>
        <time>2018-12-28T02:53:55Z</time>
      </trkpt>
      <trkpt lat="37.550950" lon="-119.678340">
        <ele>1243.369</ele>
        <time>2018-12-28T02:54:15Z</time>
      </trkpt>
      <trkpt lat="37.550890" lon="-119.678270">
        <ele>1243.345</ele>
        <time>2018-12-28T02:54:35Z</time>
      </trkpt>
      <trkpt lat="37.550830" lon="-119.678180">
        <ele>1243.774</ele>
        <time>2018-12-28T02:54:55Z</time>
      </trkpt>
      <trkpt lat="37.550770" lon="-119.678090">
        <ele>1244.016</ele>
        <time>2018-12-28T02:55:15Z</time>
      </trkpt>
      <trkpt lat="37.550660" lon="-119.677950">
        <ele>1243.376</ele>
        <time>2018-12-28T02:55:35Z</time>
      </trkpt>
      <trkpt lat="37.550610" lon="-119.677900">
        <ele>1243.113</ele>
        <time>2018-12-28T02:55:55Z</time>
      </trkpt>
      <trkpt lat="37.550560" lon="-119.677860">
        <ele>1243.108</ele>
        <time>2018-12-28T02:56:15Z</time>
      </trkpt>
      <trkpt lat="37.550500" lon="-119.677810">
        <ele>1243.114</ele>
        <time>2018-12-28T02:56:35Z</time>
      </trkpt>
      <trkpt lat="37.550190" lon="-119.677610">
        <ele>1242.082</ele>
        <time>2018-12-28T02:56:55Z</time>
      </trkpt>
      <trkpt lat="37.549940" lon="-119.677460">
        <ele>1240.177</ele>
        <time>2018-12-28T02:57:15Z</time>
      </trkpt>
      <trkpt lat="37.549690" lon="-119.677300">
        <ele>1236.827</ele>
        <time>2018-12-28T02:57:35Z</time>
      </trkpt>
      <trkpt lat="37.549610" lon="-119.677270">
        <ele>1234.881</ele>
        <time>2018-12-28T02:57:55Z</time>
      </trkpt>
      <trkpt lat="37.549530" lon="-119.677230">
        <ele>1233.431</ele>
        <time>2018-12-28T02:58:15Z</time>
      </trkpt>
      <trkpt lat="37.549400" lon="-119.677190">
        <ele>1231.517</ele>
        <time>2018-12-28T02:58:35Z</time>
      </trkpt>
      <trkpt lat="37.549330" lon="-119.677180">
        <ele>1230.496</ele>
        <time>2018-12-28T02:58:55Z</time>
      </trkpt>
      <trkpt lat="37.549280" lon="-119.677170">
        <ele>1229.898</ele>
        <time>2018-12-28T02:59:15Z</time>
      </trkpt>
      <trkpt lat="37.549210" lon="-119.677170">
        <ele>1229.215</ele>
        <time>2018-12-28T02:59:35Z</time>
      </trkpt>
      <trkpt lat="37.549150" lon="-119.677170">
        <ele>1228.726</ele>
        <time>2018-12-28T02:59:55Z</time>
      </trkpt>
      <trkpt lat="37.549040" lon="-119.677180">
        <ele>1227.608</ele>
        <time>2018-12-28T03:00:15Z</time>
      </trkpt>
      <trkpt lat="37.548920" lon="-119.677180">
        <ele>1227.122</ele>
        <time>2018-12-28T03:00:35Z</time>
      </trkpt>
      <trkpt lat="37.548840" lon="-119.677180">
        <ele>1226.880</ele>
        <time>2018-12-28T03:00:55Z</time>
      </trkpt>
      <trkpt lat="37.548720" lon="-119.677180">
        <ele>1226.365</ele>
        <time>2018-12-28T03:01:15Z</time>
      </trkpt>
      <trkpt lat="37.548580" lon="-119.677160">
        <ele>1226.025</ele>
        <time>2018-12-28T03:01:35Z</time>
      </trkpt>
      <trkpt lat="37.548450" lon="-119.677130">
        <ele>1225.849</ele>
        <time>2018-12-28T03:01:55Z</time>
      </trkpt>
      <trkpt lat="37.548320" lon="-119.677090">
        <ele>1225.789</ele>
        <time>2018-12-28T03:02:15Z</time>
      </trkpt>
      <trkpt lat="37.548190" lon="-119.677040">
        <ele>1225.965</ele>
        <time>2018-12-28T03:02:35Z</time>
      </trkpt>
      <trkpt lat="37.547960" lon="-119.676950">
        <ele>1224.594</ele>
        <time>2018-12-28T03:02:55Z</time>
      </trkpt>
      <trkpt lat="37.547810" lon="-119.676890">
        <ele>1223.864</ele>
        <time>2018-12-28T03:03:15Z</time>
      </trkpt>
      <trkpt lat="37.547730" lon="-119.676880">
        <ele>1223.106</ele>
        <time>2018-12-28T03:03:35Z</time>
      </trkpt>
      <trkpt lat="37.547660" lon="-119.676870">
        <ele>1222.416</ele>
        <time>2018-12-28T03:03:55Z</time>
      </trkpt>
      <trkpt lat="37.547560" lon="-119.676880">
        <ele>1220.508</ele>
        <time>2018-12-28T03:04:15Z</time>
      </trkpt>
      <trkpt lat="37.547450" lon="-119.676890">
        <ele>1218.349</ele>
        <time>2018-12-28T03:04:35Z</time>
      </trkpt>
      <trkpt lat="37.547340" lon="-119.676890">
        <ele>1216.437</ele>
        <time>2018-12-28T03:04:55Z</time>
      </trkpt>
      <trkpt lat="37.547280" lon="-119.676880">
        <ele>1215.982</ele>
        <time>2018-12-28T03:05:15Z</time>
      </trkpt>
      <trkpt lat="37.547160" lon="-119.676840">
        <ele>1215.372</ele>
        <time>2018-12-28T03:05:35Z</time>
      </trkpt>
      <trkpt lat="37.547060" lon="-119.676790">
        <ele>1214.946</ele>
        <time>2018-12-28T03:05:55Z</time>
      </trkpt>
      <trkpt lat="37.546990" lon="-119.676750">
        <ele>1214.296</ele>
        <time>2018-12-28T03:06:15Z</time>
      </trkpt>
      <trkpt lat="37.546930" lon="-119.676710">
        <ele>1213.722</ele>
        <time>2018-12-28T03:06:35Z</time>
      </trkpt>
      <trkpt lat="37.546870" lon="-119.676650">
        <ele>1213.311</ele>
        <time>2018-12-28T03:06:55Z</time>
      </trkpt>
      <trkpt lat="37.546800" lon="-119.676570">
        <ele>1212.812</ele>
        <time>2018-12-28T03:07:15Z</time>
      </trkpt>
      <trkpt lat="37.546720" lon="-119.676450">
        <ele>1212.232</ele>
        <time>2018-12-28T03:07:35Z</time>
      </trkpt>
      <trkpt lat="37.546670" lon="-119.676360">
        <ele>1212.005</ele>
        <time>2018-12-28T03:07:55Z</time>
      </trkpt>
      <trkpt lat="37.546590" lon="-119.676170">
        <ele>1211.408</ele>
        <time>2018-12-28T03:08:15Z</time>
      </trkpt>
      <trkpt lat="37.546520" lon="-119.675890">
        <ele>1211.284</ele>
        <time>2018-12-28T03:08:35Z</time>
      </trkpt>
      <trkpt lat="37.546480" lon="-119.675710">
        <ele>1211.042</ele>
        <time>2018-12-28T03:08:55Z</time>
      </trkpt>
      <trkpt lat="37.546460" lon="-119.675580">
        <ele>1211.487</ele>
        <time>2018-12-28T03:09:15Z</time>
      </trkpt>
      <trkpt lat="37.546450" lon="-119.675440">
        <ele>1212.187</ele>
        <time>2018-12-28T03:09:35Z</time>
      </trkpt>
      <trkpt lat="37.546410" lon="-119.674960">
        <ele>1213.341</ele>
        <time>2018-12-28T03:09:55Z</time>
      </trkpt>
      <trkpt lat="37.546390" lon="-119.674630">
        <ele>1212.321</ele>
        <time>2018-12-28T03:10:15Z</time>
      </trkpt>
      <trkpt lat="37.546370" lon="-119.674510">
        <ele>1211.537</ele>
        <time>2018-12-28T03:10:35Z</time>
      </trkpt>
      <trkpt lat="37.546370" lon="-119.674450">
        <ele>1211.576</ele>
        <time>2018-12-28T03:10:55Z</time>
      </trkpt>
      <trkpt lat="37.546350" lon="-119.674390">
        <ele>1210.685</ele>
        <time>2018-12-28T03:11:15Z</time>
      </trkpt>
      <trkpt lat="37.546320" lon="-119.674280">
        <ele>1209.489</ele>
        <time>2018-12-28T03:11:35Z</time>
      </trkpt>
      <trkpt lat="37.546290" lon="-119.674200">
        <ele>1208.717</ele>
        <time>2018-12-28T03:11:55Z</time>
      </trkpt>
      <trkpt lat="37.546270" lon="-119.674140">
        <ele>1208.208</ele>
        <time>2018-12-28T03:12:15Z</time>
      </trkpt>
      <trkpt lat="37.546230" lon="-119.674080">
        <ele>1207.371</ele>
        <time>2018-12-28T03:12:35Z</time>
      </trkpt>
      <trkpt lat="37.546170" lon="-119.673970">
        <ele>1208.299</ele>
        <time>2018-12-28T03:12:55Z</time>
      </trkpt>
      <trkpt lat="37.546110" lon="-119.673900">
        <ele>1208.654</ele>
        <time>2018-12-28T03:13:15Z</time>
      </trkpt>
      <trkpt lat="37.546060" lon="-119.673850">
        <ele>1208.354</ele>
        <time>2018-12-28T03:13:35Z</time>
      </trkpt>
      <trkpt lat="37.545940" lon="-119.673760">
        <ele>1206.748</ele>
        <time>2018-12-28T03:13:55Z</time>
      </trkpt>
      <trkpt lat="37.545850" lon="-119.673710">
        <ele>1206.718</ele>
        <time>2018-12-28T03:14:15Z</time>
      </trkpt>
      <trkpt lat="37.545740" lon="-119.673640">
        <ele>1206.564</ele>
        <time>2018-12-28T03:14:35Z</time>
      </trkpt>
      <trkpt lat="37.545660" lon="-119.673590">
        <ele>1206.183</ele>
        <time>2018-12-28T03:14:55Z</time>
      </trkpt>
      <trkpt lat="37.545600" lon="-119.673530">
        <ele>1206.232</ele>
        <time>2018-12-28T03:15:15Z</time>
      </trkpt>
      <trkpt lat="37.545550" lon="-119.673490">
        <ele>1206.092</ele>
        <time>2018-12-28T03:15:35Z</time>
      </trkpt>
      <trkpt lat="37.545500" lon="-119.673430">
        <ele>1206.211</ele>
        <time>2018-12-28T03:15:55Z</time>
      </trkpt>
      <trkpt lat="37.545430" lon="-119.673340">
        <ele>1206.108</ele>
        <time>2018-12-28T03:16:15Z</time>
      </trkpt>
      <trkpt lat="37.545380" lon="-119.673240">
        <ele>1206.316</ele>
        <time>2018-12-28T03:16:35Z</time>
      </trkpt>
      <trkpt lat="37.545320" lon="-119.673130">
        <ele>1206.784</ele>
        <time>2018-12-28T03:16:55Z</time>
      </trkpt>
      <trkpt lat="37.545200" lon="-119.672890">
        <ele>1207.329</ele>
        <time>2018-12-28T03:17:15Z</time>
      </trkpt>
      <trkpt lat="37.545080" lon="-119.672680">
        <ele>1206.699</ele>
        <time>2018-12-28T03:17:35Z</time>
      </trkpt>
      <trkpt lat="37.545030" lon="-119.672610">
        <ele>1206.883</ele>
        <time>2018-12-28T03:17:55Z</time>
      </trkpt>
      <trkpt lat="37.544960" lon="-119.672520">
        <ele>1207.163</ele>
        <time>2018-12-28T03:18:15Z</time>
      </trkpt>
      <trkpt lat="37.544870" lon="-119.672430">
        <ele>1206.519</ele>
        <time>2018-12-28T03:18:35Z</time>
      </trkpt>
      <trkpt lat="37.544790" lon="-119.672350">
        <ele>1206.568</ele>
        <time>2018-12-28T03:18:55Z</time>
      </trkpt>
      <trkpt lat="37.544730" lon="-119.672300">
        <ele>1206.663</ele>
        <time>2018-12-28T03:19:15Z</time>
      </trkpt>
      <trkpt lat="37.544670" lon="-119.672250">
        <ele>1206.644</ele>
        <time>2018-12-28T03:19:35Z</time>
      </trkpt>
      <trkpt lat="37.544630" lon="-119.672230">
        <ele>1206.418</ele>
        <time>2018-12-28T03:19:55Z</time>
      </trkpt>
      <trkpt lat="37.544510" lon="-119.672160">
        <ele>1206.108</ele>
        <time>2018-12-28T03:20:15Z</time>
      </trkpt>
      <trkpt lat="37.544430" lon="-119.672130">
        <ele>1205.949</ele>
        <time>2018-12-28T03:20:35Z</time>
      </trkpt>
      <trkpt lat="37.544260" lon="-119.672070">
        <ele>1205.647</ele>
        <time>2018-12-28T03:20:55Z</time>
      </trkpt>
      <trkpt lat="37.543970" lon="-119.672000">
        <ele>1204.942</ele>
        <time>2018-12-28T03:21:15Z</time>
      </trkpt>
      <trkpt lat="37.543820" lon="-119.671960">
        <ele>1204.352</ele>
        <time>2018-12-28T03:21:35Z</time>
      </trkpt>
      <trkpt lat="37.543680" lon="-119.671900">
        <ele>1203.876</ele>
        <time>2018-12-28T03:21:55Z</time>
      </trkpt>
      <trkpt lat="37.543560" lon="-119.671850">
        <ele>1203.066</ele>
        <time>2018-12-28T03:22:15Z</time>
      </trkpt>
      <trkpt lat="37.543400" lon="-119.671760">
        <ele>1201.812</ele>
        <time>2018-12-28T03:22:35Z</time>
      </trkpt>
      <trkpt lat="37.543330" lon="-119.671710">
        <ele>1201.081</ele>
        <time>2018-12-28T03:22:55Z</time>
      </trkpt>
      <trkpt lat="37.543270" lon="-119.671640">
        <ele>1200.459</ele>
        <time>2018-12-28T03:23:15Z</time>
      </trkpt>
      <trkpt lat="37.543230" lon="-119.671600">
        <ele>1199.803</ele>
        <time>2018-12-28T03:23:35Z</time>
      </trkpt>
      <trkpt lat="37.543180" lon="-119.671530">
        <ele>1199.123</ele>
        <time>2018-12-28T03:23:55Z</time>
      </trkpt>
      <trkpt lat="37.543150" lon="-119.671470">
        <ele>1199.008</ele>
        <time>2018-12-28T03:24:15Z</time>
      </trkpt>
      <trkpt lat="37.543120" lon="-119.671400">
        <ele>1199.048</ele>
        <time>2018-12-28T03:24:35Z</time>
      </trkpt>
      <trkpt lat="37.543080" lon="-119.671290">
        <ele>1199.166</ele>
        <time>2018-12-28T03:24:55Z</time>
      </trkpt>
      <trkpt lat="37.543040" lon="-119.671160">
        <ele>1198.761</ele>
        <time>2018-12-28T03:25:15Z</time>
      </trkpt>
      <trkpt lat="37.543010" lon="-119.671040">
        <ele>1198.281</ele>
        <time>2018-12-28T03:25:35Z</time>
      </trkpt>
      <trkpt lat="37.543010" lon="-119.670950">
        <ele>1198.265</ele>
        <time>2018-12-28T03:25:55Z</time>
      </trkpt>
      <trkpt lat="37.542990" lon="-119.670620">
        <ele>1197.935</ele>
        <time>2018-12-28T03:26:15Z</time>
      </trkpt>
      <trkpt lat="37.542990" lon="-119.670350">
        <ele>1198.841</ele>
        <time>2018-12-28T03:26:35Z</time>
      </trkpt>
      <trkpt lat="37.542980" lon="-119.670130">
        <ele>1199.820</ele>
        <time>2018-12-28T03:26:55Z</time>
      </trkpt>
      <trkpt lat="37.542950" lon="-119.669860">
        <ele>1200.976</ele>
        <time>2018-12-28T03:27:15Z</time>
      </trkpt>
      <trkpt lat="37.542910" lon="-119.669640">
        <ele>1202.290</ele>
        <time>2018-12-28T03:27:35Z</time>
      </trkpt>
      <trkpt lat="37.542860" lon="-119.669400">
        <ele>1203.319</ele>
        <time>2018-12-28T03:27:55Z</time>
      </trkpt>
      <trkpt lat="37.542830" lon="-119.669290">
        <ele>1203.708</ele>
        <time>2018-12-28T03:28:15Z</time>
      </trkpt>
      <trkpt lat="37.542790" lon="-119.669170">
        <ele>1204.390</ele>
        <time>2018-12-28T03:28:35Z</time>
      </trkpt>
      <trkpt lat="37.542760" lon="-119.669090">
        <ele>1204.658</ele>
        <time>2018-12-28T03:28:55Z</time>
      </trkpt>
      <trkpt lat="37.542700" lon="-119.668950">
        <ele>1205.223</ele>
        <time>2018-12-28T03:29:15Z</time>
      </trkpt>
      <trkpt lat="37.542620" lon="-119.668760">
        <ele>1205.423</ele>
        <time>2018-12-28T03:29:35Z</time>
      </trkpt>
      <trkpt lat="37.542510" lon="-119.668550">
        <ele>1205.717</ele>
        <time>2018-12-28T03:29:55Z</time>
      </trkpt>
      <trkpt lat="37.542300" lon="-119.668150">
        <ele>1206.267</ele>
        <time>2018-12-28T03:30:15Z</time>
      </trkpt>
      <trkpt lat="37.542110" lon="-119.667820">
        <ele>1207.173</ele>
        <time>2018-12-28T03:30:35Z</time>
      </trkpt>
      <trkpt lat="37.542060" lon="-119.667750">
        <ele>1206.982</ele>
        <time>2018-12-28T03:30:55Z</time>
      </trkpt>
      <trkpt lat="37.541920" lon="-119.667530">
        <ele>1208.412</ele>
        <time>2018-12-28T03:31:15Z</time>
      </trkpt>
      <trkpt lat="37.541850" lon="-119.667430">
        <ele>1208.432</ele>
        <time>2018-12-28T03:31:35Z</time>
      </trkpt>
      <trkpt lat="37.541720" lon="-119.667280">
        <ele>1207.905</ele>
        <time>2018-12-28T03:31:55Z</time>
      </trkpt>
      <trkpt lat="37.541660" lon="-119.667210">
        <ele>1207.908</ele>
        <time>2018-12-28T03:32:15Z</time>
      </trkpt>
      <trkpt lat="37.541590" lon="-119.667150">
        <ele>1207.094</ele>
        <time>2018-12-28T03:32:35Z</time>
      </trkpt>
      <trkpt lat="37.541490" lon="-119.667060">
        <ele>1206.382</ele>
        <time>2018-12-28T03:32:55Z</time>
      </trkpt>
      <trkpt lat="37.541350" lon="-119.666960">
        <ele>1206.557</ele>
        <time>2018-12-28T03:33:15Z</time>
      </trkpt>
      <trkpt lat="37.541180" lon="-119.666860">
        <ele>1205.737</ele>
        <time>2018-12-28T03:33:35Z</time>
      </trkpt>
      <trkpt lat="37.541010" lon="-119.666750">
        <ele>1205.291</ele>
        <time>2018-12-28T03:33:55Z</time>
      </trkpt>
      <trkpt lat="37.540910" lon="-119.666670">
        <ele>1205.121</ele>
        <time>2018-12-28T03:34:15Z</time>
      </trkpt>
      <trkpt lat="37.540830" lon="-119.666610">
        <ele>1205.067</ele>
        <time>2018-12-28T03:34:35Z</time>
      </trkpt>
      <trkpt lat="37.540720" lon="-119.666490">
        <ele>1205.396</ele>
        <time>2018-12-28T03:34:55Z</time>
      </trkpt>
      <trkpt lat="37.540610" lon="-119.666340">
        <ele>1205.226</ele>
        <time>2018-12-28T03:35:15Z</time>
      </trkpt>
      <trkpt lat="37.540520" lon="-119.666210">
        <ele>1205.147</ele>
        <time>2018-12-28T03:35:35Z</time>
      </trkpt>
      <trkpt lat="37.540400" lon="-119.666000">
        <ele>1205.011</ele>
        <time>2018-12-28T03:35:55Z</time>
      </trkpt>
      <trkpt lat="37.540340" lon="-119.665870">
        <ele>1205.008</ele>
        <time>2018-12-28T03:36:15Z</time>
      </trkpt>
      <trkpt lat="37.540290" lon="-119.665740">
        <ele>1205.025</ele>
        <time>2018-12-28T03:36:35Z</time>
      </trkpt>
      <trkpt lat="37.540250" lon="-119.665610">
        <ele>1205.253</ele>
        <time>2018-12-28T03:36:55Z</time>
      </trkpt>
      <trkpt lat="37.540210" lon="-119.665440">
        <ele>1205.568</ele>
        <time>2018-12-28T03:37:15Z</time>
      </trkpt>
      <trkpt lat="37.540150" lon="-119.665170">
        <ele>1206.078</ele>
        <time>2018-12-28T03:37:35Z</time>
      </trkpt>
      <trkpt lat="37.539990" lon="-119.664300">
        <ele>1206.712</ele>
        <time>2018-12-28T03:37:55Z</time>
      </trkpt>
      <trkpt lat="37.539790" lon="-119.663230">
        <ele>1210.282</ele>
        <time>2018-12-28T03:38:15Z</time>
      </trkpt>
      <trkpt lat="37.539560" lon="-119.662050">
        <ele>1211.388</ele>
        <time>2018-12-28T03:38:35Z</time>
      </trkpt>
      <trkpt lat="37.539420" lon="-119.661310">
        <ele>1211.227</ele>
        <time>2018-12-28T03:38:55Z</time>
      </trkpt>
      <trkpt lat="37.539290" lon="-119.660640">
        <ele>1210.035</ele>
        <time>2018-12-28T03:39:15Z</time>
      </trkpt>
      <trkpt lat="37.539220" lon="-119.660400">
        <ele>1209.686</ele>
        <time>2018-12-28T03:39:35Z</time>
      </trkpt>
      <trkpt lat="37.539160" lon="-119.660230">
        <ele>1208.714</ele>
        <time>2018-12-28T03:39:55Z</time>
      </trkpt>
      <trkpt lat="37.539100" lon="-119.660090">
        <ele>1207.908</ele>
        <time>2018-12-28T03:40:15Z</time>
      </trkpt>
      <trkpt lat="37.539050" lon="-119.659990">
        <ele>1207.356</ele>
        <time>2018-12-28T03:40:35Z</time>
      </trkpt>
      <trkpt lat="37.538980" lon="-119.659860">
        <ele>1206.794</ele>
        <time>2018-12-28T03:40:55Z</time>
      </trkpt>
      <trkpt lat="37.538930" lon="-119.659770">
        <ele>1206.519</ele>
        <time>2018-12-28T03:41:15Z</time>
      </trkpt>
      <trkpt lat="37.538870" lon="-119.659670">
        <ele>1206.139</ele>
        <time>2018-12-28T03:41:35Z</time>
      </trkpt>
      <trkpt lat="37.538780" lon="-119.659550">
        <ele>1205.793</ele>
        <time>2018-12-28T03:41:55Z</time>
      </trkpt>
      <trkpt lat="37.538620" lon="-119.659360">
        <ele>1204.953</ele>
        <time>2018-12-28T03:42:15Z</time>
      </trkpt>
      <trkpt lat="37.538210" lon="-119.658940">
        <ele>1205.599</ele>
        <time>2018-12-28T03:42:35Z</time>
      </trkpt>
      <trkpt lat="37.537740" lon="-119.658440">
        <ele>1208.068</ele>
        <time>2018-12-28T03:42:55Z</time>
      </trkpt>
      <trkpt lat="37.537640" lon="-119.658330">
        <ele>1208.123</ele>
        <time>2018-12-28T03:43:15Z</time>
      </trkpt>
      <trkpt lat="37.537590" lon="-119.658280">
        <ele>1208.183</ele>
        <time>2018-12-28T03:43:35Z</time>
      </trkpt>
      <trkpt lat="37.537570" lon="-119.658260">
        <ele>1208.111</ele>
        <time>2018-12-28T03:43:55Z</time>
      </trkpt>
      <trkpt lat="37.537240" lon="-119.657930">
        <ele>1208.908</ele>
        <time>2018-12-28T03:44:15Z</time>
      </trkpt>
      <trkpt lat="37.535950" lon="-119.656580">
        <ele>1214.455</ele>
        <time>2018-12-28T03:44:35Z</time>
      </trkpt>
      <trkpt lat="37.535720" lon="-119.656330">
        <ele>1215.233</ele>
        <time>2018-12-28T03:44:55Z</time>
      </trkpt>
      <trkpt lat="37.535630" lon="-119.656210">
        <ele>1215.658</ele>
        <time>2018-12-28T03:45:15Z</time>
      </trkpt>
      <trkpt lat="37.535570" lon="-119.656120">
        <ele>1216.088</ele>
        <time>2018-12-28T03:45:35Z</time>
      </trkpt>
      <trkpt lat="37.535490" lon="-119.656000">
        <ele>1216.472</ele>
        <time>2018-12-28T03:45:55Z</time>
      </trkpt>
      <trkpt lat="37.535430" lon="-119.655850">
        <ele>1217.172</ele>
        <time>2018-12-28T03:46:15Z</time>
      </trkpt>
      <trkpt lat="37.535360" lon="-119.655690">
        <ele>1217.818</ele>
        <time>2018-12-28T03:46:35Z</time>
      </trkpt>
      <trkpt lat="37.535320" lon="-119.655580">
        <ele>1218.147</ele>
        <time>2018-12-28T03:46:55Z</time>
      </trkpt>
      <trkpt lat="37.535290" lon="-119.655470">
        <ele>1218.644</ele>
        <time>2018-12-28T03:47:15Z</time>
      </trkpt>
      <trkpt lat="37.535270" lon="-119.655370">
        <ele>1219.205</ele>
        <time>2018-12-28T03:47:35Z</time>
      </trkpt>
      <trkpt lat="37.535250" lon="-119.655290">
        <ele>1219.615</ele>
        <time>2018-12-28T03:47:55Z</time>
      </trkpt>
      <trkpt lat="37.535190" lon="-119.654950">
        <ele>1221.608</ele>
        <time>2018-12-28T03:48:15Z</time>
      </trkpt>
      <trkpt lat="37.535020" lon="-119.653990">
        <ele>1225.557</ele>
        <time>2018-12-28T03:48:35Z</time>
      </trkpt>
      <trkpt lat="37.534910" lon="-119.653210">
        <ele>1230.635</ele>
        <time>2018-12-28T03:48:55Z</time>
      </trkpt>
      <trkpt lat="37.534840" lon="-119.652760">
        <ele>1233.790</ele>
        <time>2018-12-28T03:49:15Z</time>
      </trkpt>
      <trkpt lat="37.534780" lon="-119.652380">
        <ele>1235.130</ele>
        <time>2018-12-28T03:49:35Z</time>
      </trkpt>
      <trkpt lat="37.534750" lon="-119.652180">
        <ele>1235.954</ele>
        <time>2018-12-28T03:49:55Z</time>
      </trkpt>
      <trkpt lat="37.534720" lon="-119.651910">
        <ele>1237.224</ele>
        <time>2018-12-28T03:50:15Z</time>
      </trkpt>
      <trkpt lat="37.534710" lon="-119.651740">
        <ele>1238.060</ele>
        <time>2018-12-28T03:50:35Z</time>
      </trkpt>
      <trkpt lat="37.534700" lon="-119.651590">
        <ele>1238.759</ele>
        <time>2018-12-28T03:50:55Z</time>
      </trkpt>
      <trkpt lat="37.534690" lon="-119.650930">
        <ele>1241.314</ele>
        <time>2018-12-28T03:51:15Z</time>
      </trkpt>
      <trkpt lat="37.534680" lon="-119.650450">
        <ele>1244.454</ele>
        <time>2018-12-28T03:51:35Z</time>
      </trkpt>
      <trkpt lat="37.534670" lon="-119.649970">
        <ele>1246.509</ele>
        <time>2018-12-28T03:51:55Z</time>
      </trkpt>
      <trkpt lat="37.534650" lon="-119.649320">
        <ele>1247.808</ele>
        <time>2018-12-28T03:52:15Z</time>
      </trkpt>
      <trkpt lat="37.534650" lon="-119.648980">
        <ele>1250.374</ele>
        <time>2018-12-28T03:52:35Z</time>
      </trkpt>
      <trkpt lat="37.534630" lon="-119.648490">
        <ele>1255.962</ele>
        <time>2018-12-28T03:52:55Z</time>
      </trkpt>
      <trkpt lat="37.534620" lon="-119.648350">
        <ele>1257.277</ele>
        <time>2018-12-28T03:53:15Z</time>
      </trkpt>
      <trkpt lat="37.534600" lon="-119.648190">
        <ele>1258.257</ele>
        <time>2018-12-28T03:53:35Z</time>
      </trkpt>
      <trkpt lat="37.534570" lon="-119.647980">
        <ele>1258.561</ele>
        <time>2018-12-28T03:53:55Z</time>
      </trkpt>
      <trkpt lat="37.534530" lon="-119.647770">
        <ele>1259.091</ele>
        <time>2018-12-28T03:54:15Z</time>
      </trkpt>
      <trkpt lat="37.534480" lon="-119.647550">
        <ele>1260.037</ele>
        <time>2018-12-28T03:54:35Z</time>
      </trkpt>
      <trkpt lat="37.534440" lon="-119.647430">
        <ele>1260.356</ele>
        <time>2018-12-28T03:54:55Z</time>
      </trkpt>
      <trkpt lat="37.534410" lon="-119.647330">
        <ele>1260.799</ele>
        <time>2018-12-28T03:55:15Z</time>
      </trkpt>
      <trkpt lat="37.534370" lon="-119.647190">
        <ele>1261.707</ele>
        <time>2018-12-28T03:55:35Z</time>
      </trkpt>
      <trkpt lat="37.534300" lon="-119.647030">
        <ele>1261.827</ele>
        <time>2018-12-28T03:55:55Z</time>
      </trkpt>
      <trkpt lat="37.534270" lon="-119.646950">
        <ele>1262.308</ele>
        <time>2018-12-28T03:56:15Z</time>
      </trkpt>
      <trkpt lat="37.534200" lon="-119.646810">
        <ele>1262.482</ele>
        <time>2018-12-28T03:56:35Z</time>
      </trkpt>
      <trkpt lat="37.534140" lon="-119.646700">
        <ele>1262.650</ele>
        <time>2018-12-28T03:56:55Z</time>
      </trkpt>
      <trkpt lat="37.534040" lon="-119.646520">
        <ele>1262.755</ele>
        <time>2018-12-28T03:57:15Z</time>
      </trkpt>
      <trkpt lat="37.533980" lon="-119.646430">
        <ele>1262.485</ele>
        <time>2018-12-28T03:57:35Z</time>
      </trkpt>
      <trkpt lat="37.533900" lon="-119.646290">
        <ele>1262.779</ele>
        <time>2018-12-28T03:57:55Z</time>
      </trkpt>
      <trkpt lat="37.533800" lon="-119.646150">
        <ele>1263.249</ele>
        <time>2018-12-28T03:58:15Z</time>
      </trkpt>
      <trkpt lat="37.533650" lon="-119.645910">
        <ele>1265.945</ele>
        <time>2018-12-28T03:58:35Z</time>
      </trkpt>
      <trkpt lat="37.533570" lon="-119.645780">
        <ele>1268.414</ele>
        <time>2018-12-28T03:58:55Z</time>
      </trkpt>
      <trkpt lat="37.533490" lon="-119.645640">
        <ele>1271.214</ele>
        <time>2018-12-28T03:59:15Z</time>
      </trkpt>
      <trkpt lat="37.533420" lon="-119.645500">
        <ele>1272.654</ele>
        <time>2018-12-28T03:59:35Z</time>
      </trkpt>
      <trkpt lat="37.533380" lon="-119.645410">
        <ele>1273.409</ele>
        <time>2018-12-28T03:59:55Z</time>
      </trkpt>
      <trkpt lat="37.533350" lon="-119.645330">
        <ele>1273.608</ele>
        <time>2018-12-28T04:00:15Z</time>
      </trkpt>
      <trkpt lat="37.533290" lon="-119.645120">
        <ele>1274.044</ele>
        <time>2018-12-28T04:00:35Z</time>
      </trkpt>
      <trkpt lat="37.533240" lon="-119.644930">
        <ele>1274.192</ele>
        <time>2018-12-28T04:00:55Z</time>
      </trkpt>
      <trkpt lat="37.533190" lon="-119.644670">
        <ele>1276.777</ele>
        <time>2018-12-28T04:01:15Z</time>
      </trkpt>
      <trkpt lat="37.533050" lon="-119.644000">
        <ele>1283.487</ele>
        <time>2018-12-28T04:01:35Z</time>
      </trkpt>
      <trkpt lat="37.532960" lon="-119.643580">
        <ele>1283.321</ele>
        <time>2018-12-28T04:01:55Z</time>
      </trkpt>
      <trkpt lat="37.532880" lon="-119.643230">
        <ele>1283.071</ele>
        <time>2018-12-28T04:02:15Z</time>
      </trkpt>
      <trkpt lat="37.532840" lon="-119.643080">
        <ele>1283.157</ele>
        <time>2018-12-28T04:02:35Z</time>
      </trkpt>
      <trkpt lat="37.532800" lon="-119.642960">
        <ele>1283.156</ele>
        <time>2018-12-28T04:02:55Z</time>
      </trkpt>
      <trkpt lat="37.532760" lon="-119.642830">
        <ele>1283.477</ele>
        <time>2018-12-28T04:03:15Z</time>
      </trkpt>
      <trkpt lat="37.532650" lon="-119.642490">
        <ele>1284.661</ele>
        <time>2018-12-28T04:03:35Z</time>
      </trkpt>
      <trkpt lat="37.532570" lon="-119.642230">
        <ele>1286.127</ele>
        <time>2018-12-28T04:03:55Z</time>
      </trkpt>
      <trkpt lat="37.532530" lon="-119.642040">
        <ele>1287.608</ele>
        <time>2018-12-28T04:04:15Z</time>
      </trkpt>
      <trkpt lat="37.532500" lon="-119.641890">
        <ele>1288.330</ele>
        <time>2018-12-28T04:04:35Z</time>
      </trkpt>
      <trkpt lat="37.532480" lon="-119.641780">
        <ele>1288.788</ele>
        <time>2018-12-28T04:04:55Z</time>
      </trkpt>
      <trkpt lat="37.532440" lon="-119.641490">
        <ele>1289.513</ele>
        <time>2018-12-28T04:05:15Z</time>
      </trkpt>
      <trkpt lat="37.532400" lon="-119.641010">
        <ele>1292.743</ele>
        <time>2018-12-28T04:05:35Z</time>
      </trkpt>
      <trkpt lat="37.532380" lon="-119.640660">
        <ele>1296.297</ele>
        <time>2018-12-28T04:05:55Z</time>
      </trkpt>
      <trkpt lat="37.532360" lon="-119.640420">
        <ele>1296.817</ele>
        <time>2018-12-28T04:06:15Z</time>
      </trkpt>
      <trkpt lat="37.532340" lon="-119.640260">
        <ele>1297.573</ele>
        <time>2018-12-28T04:06:35Z</time>
      </trkpt>
      <trkpt lat="37.532330" lon="-119.640160">
        <ele>1297.952</ele>
        <time>2018-12-28T04:06:55Z</time>
      </trkpt>
      <trkpt lat="37.532310" lon="-119.640070">
        <ele>1298.249</ele>
        <time>2018-12-28T04:07:15Z</time>
      </trkpt>
      <trkpt lat="37.532300" lon="-119.640030">
        <ele>1298.302</ele>
        <time>2018-12-28T04:07:35Z</time>
      </trkpt>
      <trkpt lat="37.532280" lon="-119.639940">
        <ele>1298.822</ele>
        <time>2018-12-28T04:07:55Z</time>
      </trkpt>
      <trkpt lat="37.532240" lon="-119.639850">
        <ele>1298.608</ele>
        <time>2018-12-28T04:08:15Z</time>
      </trkpt>
      <trkpt lat="37.532220" lon="-119.639790">
        <ele>1298.867</ele>
        <time>2018-12-28T04:08:35Z</time>
      </trkpt>
      <trkpt lat="37.532180" lon="-119.639720">
        <ele>1298.895</ele>
        <time>2018-12-28T04:08:55Z</time>
      </trkpt>
      <trkpt lat="37.532140" lon="-119.639670">
        <ele>1298.580</ele>
        <time>2018-12-28T04:09:15Z</time>
      </trkpt>
      <trkpt lat="37.532110" lon="-119.639620">
        <ele>1298.710</ele>
        <time>2018-12-28T04:09:35Z</time>
      </trkpt>
      <trkpt lat="37.532070" lon="-119.639570">
        <ele>1298.874</ele>
        <time>2018-12-28T04:09:55Z</time>
      </trkpt>
      <trkpt lat="37.532020" lon="-119.639520">
        <ele>1299.134</ele>
        <time>2018-12-28T04:10:15Z</time>
      </trkpt>
      <trkpt lat="37.531970" lon="-119.639480">
        <ele>1299.380</ele>
        <time>2018-12-28T04:10:35Z</time>
      </trkpt>
      <trkpt lat="37.531940" lon="-119.639450">
        <ele>1299.639</ele>
        <time>2018-12-28T04:10:55Z</time>
      </trkpt>
      <trkpt lat="37.531900" lon="-119.639420">
        <ele>1299.769</ele>
        <time>2018-12-28T04:11:15Z</time>
      </trkpt>
      <trkpt lat="37.531800" lon="-119.639360">
        <ele>1299.804</ele>
        <time>2018-12-28T04:11:35Z</time>
      </trkpt>
      <trkpt lat="37.531660" lon="-119.639300">
        <ele>1300.424</ele>
        <time>2018-12-28T04:11:55Z</time>
      </trkpt>
      <trkpt lat="37.531580" lon="-119.639260">
        <ele>1301.108</ele>
        <time>2018-12-28T04:12:15Z</time>
      </trkpt>
      <trkpt lat="37.531470" lon="-119.639200">
        <ele>1301.979</ele>
        <time>2018-12-28T04:12:35Z</time>
      </trkpt>
      <trkpt lat="37.531420" lon="-119.639160">
        <ele>1302.497</ele>
        <time>2018-12-28T04:12:55Z</time>
      </trkpt>
      <trkpt lat="37.531370" lon="-119.639130">
        <ele>1302.772</ele>
        <time>2018-12-28T04:13:15Z</time>
      </trkpt>
      <trkpt lat="37.531310" lon="-119.639080">
        <ele>1303.312</ele>
        <time>2018-12-28T04:13:35Z</time>
      </trkpt>
      <trkpt lat="37.531260" lon="-119.639040">
        <ele>1303.746</ele>
        <time>2018-12-28T04:13:55Z</time>
      </trkpt>
      <trkpt lat="37.531190" lon="-119.638960">
        <ele>1304.456</ele>
        <time>2018-12-28T04:14:15Z</time>
      </trkpt>
      <trkpt lat="37.531120" lon="-119.638870">
        <ele>1305.432</ele>
        <time>2018-12-28T04:14:35Z</time>
      </trkpt>
      <trkpt lat="37.531060" lon="-119.638780">
        <ele>1306.681</ele>
        <time>2018-12-28T04:14:55Z</time>
      </trkpt>
      <trkpt lat="37.530990" lon="-119.638680">
        <ele>1308.022</ele>
        <time>2018-12-28T04:15:15Z</time>
      </trkpt>
      <trkpt lat="37.530850" lon="-119.638430">
        <ele>1310.462</ele>
        <time>2018-12-28T04:15:35Z</time>
      </trkpt>
      <trkpt lat="37.530690" lon="-119.638150">
        <ele>1311.108</ele>
        <time>2018-12-28T04:15:55Z</time>
      </trkpt>
      <trkpt lat="37.530550" lon="-119.637860">
        <ele>1312.408</ele>
        <time>2018-12-28T04:16:15Z</time>
      </trkpt>
      <trkpt lat="37.530470" lon="-119.637700">
        <ele>1312.755</ele>
        <time>2018-12-28T04:16:35Z</time>
      </trkpt>
      <trkpt lat="37.530400" lon="-119.637530">
        <ele>1313.083</ele>
        <time>2018-12-28T04:16:55Z</time>
      </trkpt>
      <trkpt lat="37.530350" lon="-119.637380">
        <ele>1313.368</ele>
        <time>2018-12-28T04:17:15Z</time>
      </trkpt>
      <trkpt lat="37.530300" lon="-119.637260">
        <ele>1313.828</ele>
        <time>2018-12-28T04:17:35Z</time>
      </trkpt>
      <trkpt lat="37.530260" lon="-119.637140">
        <ele>1315.622</ele>
        <time>2018-12-28T04:17:55Z</time>
      </trkpt>
      <trkpt lat="37.530170" lon="-119.636860">
        <ele>1320.232</ele>
        <time>2018-12-28T04:18:15Z</time>
      </trkpt>
      <trkpt lat="37.530060" lon="-119.636470">
        <ele>1323.518</ele>
        <time>2018-12-28T04:18:35Z</time>
      </trkpt>
      <trkpt lat="37.530010" lon="-119.636270">
        <ele>1324.557</ele>
        <time>2018-12-28T04:18:55Z</time>
      </trkpt>
      <trkpt lat="37.529980" lon="-119.636120">
        <ele>1325.273</ele>
        <time>2018-12-28T04:19:15Z</time>
      </trkpt>
      <trkpt lat="37.529910" lon="-119.635710">
        <ele>1327.685</ele>
        <time>2018-12-28T04:19:35Z</time>
      </trkpt>
      <trkpt lat="37.529860" lon="-119.635390">
        <ele>1331.713</ele>
        <time>2018-12-28T04:19:55Z</time>
      </trkpt>
      <trkpt lat="37.529830" lon="-119.635140">
        <ele>1332.308</ele>
        <time>2018-12-28T04:20:15Z</time>
      </trkpt>
      <trkpt lat="37.529820" lon="-119.634810">
        <ele>1334.050</ele>
        <time>2018-12-28T04:20:35Z</time>
      </trkpt>
      <trkpt lat="37.529820" lon="-119.634570">
        <ele>1335.928</ele>
        <time>2018-12-28T04:20:55Z</time>
      </trkpt>
      <trkpt lat="37.529820" lon="-119.634350">
        <ele>1337.463</ele>
        <time>2018-12-28T04:21:15Z</time>
      </trkpt>
      <trkpt lat="37.529840" lon="-119.634060">
        <ele>1338.823</ele>
        <time>2018-12-28T04:21:35Z</time>
      </trkpt>
      <trkpt lat="37.529850" lon="-119.633860">
        <ele>1338.987</ele>
        <time>2018-12-28T04:21:55Z</time>
      </trkpt>
      <trkpt lat="37.529850" lon="-119.633760">
        <ele>1338.817</ele>
        <time>2018-12-28T04:22:15Z</time>
      </trkpt>
      <trkpt lat="37.529840" lon="-119.633590">
        <ele>1338.933</ele>
        <time>2018-12-28T04:22:35Z</time>
      </trkpt>
      <trkpt lat="37.529840" lon="-119.633520">
        <ele>1339.052</ele>
        <time>2018-12-28T04:22:55Z</time>
      </trkpt>
      <trkpt lat="37.529830" lon="-119.633460">
        <ele>1339.089</ele>
        <time>2018-12-28T04:23:15Z</time>
      </trkpt>
      <trkpt lat="37.529810" lon="-119.633400">
        <ele>1339.106</ele>
        <time>2018-12-28T04:23:35Z</time>
      </trkpt>
      <trkpt lat="37.529790" lon="-119.633340">
        <ele>1339.126</ele>
        <time>2018-12-28T04:23:55Z</time>
      </trkpt>
      <trkpt lat="37.529770" lon="-119.633270">
        <ele>1339.208</ele>
        <time>2018-12-28T04:24:15Z</time>
      </trkpt>
      <trkpt lat="37.529750" lon="-119.633210">
        <ele>1339.411</ele>
        <time>2018-12-28T04:24:35Z</time>
      </trkpt>
      <trkpt lat="37.529700" lon="-119.633120">
        <ele>1339.659</ele>
        <time>2018-12-28T04:24:55Z</time>
      </trkpt>
      <trkpt lat="37.529640" lon="-119.633020">
        <ele>1340.154</ele>
        <time>2018-12-28T04:25:15Z</time>
      </trkpt>
      <trkpt lat="37.529590" lon="-119.632970">
        <ele>1340.444</ele>
        <time>2018-12-28T04:25:35Z</time>
      </trkpt>
      <trkpt lat="37.529540" lon="-119.632920">
        <ele>1341.398</ele>
        <time>2018-12-28T04:25:55Z</time>
      </trkpt>
      <trkpt lat="37.529490" lon="-119.632880">
        <ele>1342.668</ele>
        <time>2018-12-28T04:26:15Z</time>
      </trkpt>
      <trkpt lat="37.529440" lon="-119.632840">
        <ele>1343.864</ele>
        <time>2018-12-28T04:26:35Z</time>
      </trkpt>
      <trkpt lat="37.529310" lon="-119.632750">
        <ele>1346.783</ele>
        <time>2018-12-28T04:26:55Z</time>
      </trkpt>
      <trkpt lat="37.529140" lon="-119.632670">
        <ele>1347.462</ele>
        <time>2018-12-28T04:27:15Z</time>
      </trkpt>
      <trkpt lat="37.529060" lon="-119.632620">
        <ele>1348.383</ele>
        <time>2018-12-28T04:27:35Z</time>
      </trkpt>
      <trkpt lat="37.528990" lon="-119.632570">
        <ele>1348.811</ele>
        <time>2018-12-28T04:27:55Z</time>
      </trkpt>
      <trkpt lat="37.528910" lon="-119.632500">
        <ele>1349.208</ele>
        <time>2018-12-28T04:28:15Z</time>
      </trkpt>
      <trkpt lat="37.528830" lon="-119.632420">
        <ele>1349.799</ele>
        <time>2018-12-28T04:28:35Z</time>
      </trkpt>
      <trkpt lat="37.528760" lon="-119.632330">
        <ele>1350.347</ele>
        <time>2018-12-28T04:28:55Z</time>
      </trkpt>
      <trkpt lat="37.528690" lon="-119.632230">
        <ele>1350.762</ele>
        <time>2018-12-28T04:29:15Z</time>
      </trkpt>
      <trkpt lat="37.528650" lon="-119.632150">
        <ele>1351.222</ele>
        <time>2018-12-28T04:29:35Z</time>
      </trkpt>
      <trkpt lat="37.528620" lon="-119.632080">
        <ele>1351.736</ele>
        <time>2018-12-28T04:29:55Z</time>
      </trkpt>
      <trkpt lat="37.528590" lon="-119.632000">
        <ele>1352.046</ele>
        <time>2018-12-28T04:30:15Z</time>
      </trkpt>
      <trkpt lat="37.528560" lon="-119.631890">
        <ele>1352.582</ele>
        <time>2018-12-28T04:30:35Z</time>
      </trkpt>
      <trkpt lat="37.528530" lon="-119.631770">
        <ele>1353.021</ele>
        <time>2018-12-28T04:30:55Z</time>
      </trkpt>
      <trkpt lat="37.528520" lon="-119.631730">
        <ele>1353.161</ele>
        <time>2018-12-28T04:31:15Z</time>
      </trkpt>
      <trkpt lat="37.528520" lon="-119.631660">
        <ele>1353.921</ele>
        <time>2018-12-28T04:31:35Z</time>
      </trkpt>
      <trkpt lat="37.528510" lon="-119.631550">
        <ele>1354.813</ele>
        <time>2018-12-28T04:31:55Z</time>
      </trkpt>
      <trkpt lat="37.528510" lon="-119.631440">
        <ele>1355.708</ele>
        <time>2018-12-28T04:32:15Z</time>
      </trkpt>
      <trkpt lat="37.528520" lon="-119.631370">
        <ele>1356.479</ele>
        <time>2018-12-28T04:32:35Z</time>
      </trkpt>
      <trkpt lat="37.528530" lon="-119.631300">
        <ele>1357.157</ele>
        <time>2018-12-28T04:32:55Z</time>
      </trkpt>
      <trkpt lat="37.528540" lon="-119.631230">
        <ele>1357.732</ele>
        <time>2018-12-28T04:33:15Z</time>
      </trkpt>
      <trkpt lat="37.528560" lon="-119.631160">
        <ele>1358.122</ele>
        <time>2018-12-28T04:33:35Z</time>
      </trkpt>
      <trkpt lat="37.528580" lon="-119.631080">
        <ele>1358.586</ele>
        <time>2018-12-28T04:33:55Z</time>
      </trkpt>
      <trkpt lat="37.528600" lon="-119.631010">
        <ele>1358.856</ele>
        <time>2018-12-28T04:34:15Z</time>
      </trkpt>
      <trkpt lat="37.528630" lon="-119.630940">
        <ele>1359.152</ele>
        <time>2018-12-28T04:34:35Z</time>
      </trkpt>
      <trkpt lat="37.528700" lon="-119.630780">
        <ele>1359.371</ele>
        <time>2018-12-28T04:34:55Z</time>
      </trkpt>
      <trkpt lat="37.528770" lon="-119.630650">
        <ele>1359.596</ele>
        <time>2018-12-28T04:35:15Z</time>
      </trkpt>
      <trkpt lat="37.528900" lon="-119.630410">
        <ele>1361.131</ele>
        <time>2018-12-28T04:35:35Z</time>
      </trkpt>
      <trkpt lat="37.529030" lon="-119.630160">
        <ele>1362.724</ele>
        <time>2018-12-28T04:35:55Z</time>
      </trkpt>
      <trkpt lat="37.529110" lon="-119.629990">
        <ele>1363.708</ele>
        <time>2018-12-28T04:36:15Z</time>
      </trkpt>
      <trkpt lat="37.529190" lon="-119.629780">
        <ele>1364.182</ele>
        <time>2018-12-28T04:36:35Z</time>
      </trkpt>
      <trkpt lat="37.529260" lon="-119.629590">
        <ele>1363.710</ele>
        <time>2018-12-28T04:36:55Z</time>
      </trkpt>
      <trkpt lat="37.529310" lon="-119.629400">
        <ele>1364.425</ele>
        <time>2018-12-28T04:37:15Z</time>
      </trkpt>
      <trkpt lat="37.529340" lon="-119.629250">
        <ele>1365.245</ele>
        <time>2018-12-28T04:37:35Z</time>
      </trkpt>
      <trkpt lat="37.529420" lon="-119.628900">
        <ele>1367.649</ele>
        <time>2018-12-28T04:37:55Z</time>
      </trkpt>
      <trkpt lat="37.529470" lon="-119.628720">
        <ele>1368.839</ele>
        <time>2018-12-28T04:38:15Z</time>
      </trkpt>
      <trkpt lat="37.529490" lon="-119.628670">
        <ele>1369.235</ele>
        <time>2018-12-28T04:38:35Z</time>
      </trkpt>
      <trkpt lat="37.529510" lon="-119.628600">
        <ele>1369.634</ele>
        <time>2018-12-28T04:38:55Z</time>
      </trkpt>
      <trkpt lat="37.529550" lon="-119.628530">
        <ele>1370.359</ele>
        <time>2018-12-28T04:39:15Z</time>
      </trkpt>
      <trkpt lat="37.529570" lon="-119.628480">
        <ele>1370.703</ele>
        <time>2018-12-28T04:39:35Z</time>
      </trkpt>
      <trkpt lat="37.529620" lon="-119.628400">
        <ele>1371.723</ele>
        <time>2018-12-28T04:39:55Z</time>
      </trkpt>
      <trkpt lat="37.529670" lon="-119.628320">
        <ele>1372.808</ele>
        <time>2018-12-28T04:40:15Z</time>
      </trkpt>
      <trkpt lat="37.529740" lon="-119.628240">
        <ele>1374.448</ele>
        <time>2018-12-28T04:40:35Z</time>
      </trkpt>
      <trkpt lat="37.529900" lon="-119.628050">
        <ele>1378.286</ele>
        <time>2018-12-28T04:40:55Z</time>
      </trkpt>
      <trkpt lat="37.530100" lon="-119.627840">
        <ele>1380.241</ele>
        <time>2018-12-28T04:41:15Z</time>
      </trkpt>
      <trkpt lat="37.530130" lon="-119.627790">
        <ele>1380.461</ele>
        <time>2018-12-28T04:41:35Z</time>
      </trkpt>
      <trkpt lat="37.530170" lon="-119.627740">
        <ele>1380.715</ele>
        <time>2018-12-28T04:41:55Z</time>
      </trkpt>
      <trkpt lat="37.530280" lon="-119.627570">
        <ele>1381.635</ele>
        <time>2018-12-28T04:42:15Z</time>
      </trkpt>
      <trkpt lat="37.530310" lon="-119.627490">
        <ele>1382.071</ele>
        <time>2018-12-28T04:42:35Z</time>
      </trkpt>
      <trkpt lat="37.530350" lon="-119.627410">
        <ele>1382.510</ele>
        <time>2018-12-28T04:42:55Z</time>
      </trkpt>
      <trkpt lat="37.530370" lon="-119.627330">
        <ele>1382.962</ele>
        <time>2018-12-28T04:43:15Z</time>
      </trkpt>
      <trkpt lat="37.530390" lon="-119.627280">
        <ele>1383.483</ele>
        <time>2018-12-28T04:43:35Z</time>
      </trkpt>
      <trkpt lat="37.530400" lon="-119.627230">
        <ele>1383.711</ele>
        <time>2018-12-28T04:43:55Z</time>
      </trkpt>
      <trkpt lat="37.530410" lon="-119.627160">
        <ele>1384.108</ele>
        <time>2018-12-28T04:44:15Z</time>
      </trkpt>
      <trkpt lat="37.530420" lon="-119.627080">
        <ele>1384.519</ele>
        <time>2018-12-28T04:44:35Z</time>
      </trkpt>
      <trkpt lat="37.530420" lon="-119.627000">
        <ele>1385.087</ele>
        <time>2018-12-28T04:44:55Z</time>
      </trkpt>
      <trkpt lat="37.530420" lon="-119.626890">
        <ele>1385.682</ele>
        <time>2018-12-28T04:45:15Z</time>
      </trkpt>
      <trkpt lat="37.530410" lon="-119.626820">
        <ele>1386.072</ele>
        <time>2018-12-28T04:45:35Z</time>
      </trkpt>
      <trkpt lat="37.530410" lon="-119.626760">
        <ele>1386.316</ele>
        <time>2018-12-28T04:45:55Z</time>
      </trkpt>
      <trkpt lat="37.530400" lon="-119.626690">
        <ele>1386.526</ele>
        <time>2018-12-28T04:46:15Z</time>
      </trkpt>
      <trkpt lat="37.530370" lon="-119.626590">
        <ele>1386.752</ele>
        <time>2018-12-28T04:46:35Z</time>
      </trkpt>
      <trkpt lat="37.530340" lon="-119.626470">
        <ele>1387.171</ele>
        <time>2018-12-28T04:46:55Z</time>
      </trkpt>
      <trkpt lat="37.530310" lon="-119.626380">
        <ele>1387.542</ele>
        <time>2018-12-28T04:47:15Z</time>
      </trkpt>
      <trkpt lat="37.530280" lon="-119.626290">
        <ele>1387.822</ele>
        <time>2018-12-28T04:47:35Z</time>
      </trkpt>
      <trkpt lat="37.530140" lon="-119.625970">
        <ele>1388.414</ele>
        <time>2018-12-28T04:47:55Z</time>
      </trkpt>
      <trkpt lat="37.529650" lon="-119.624820">
        <ele>1388.408</ele>
        <time>2018-12-28T04:48:15Z</time>
      </trkpt>
      <trkpt lat="37.529130" lon="-119.623630">
        <ele>1398.377</ele>
        <time>2018-12-28T04:48:35Z</time>
      </trkpt>
      <trkpt lat="37.528950" lon="-119.623230">
        <ele>1403.415</ele>
        <time>2018-12-28T04:48:55Z</time>
      </trkpt>
      <trkpt lat="37.528850" lon="-119.623020">
        <ele>1406.080</ele>
        <time>2018-12-28T04:49:15Z</time>
      </trkpt>
      <trkpt lat="37.528780" lon="-119.622880">
        <ele>1406.750</ele>
        <time>2018-12-28T04:49:35Z</time>
      </trkpt>
      <trkpt lat="37.528720" lon="-119.622790">
        <ele>1406.684</ele>
        <time>2018-12-28T04:49:55Z</time>
      </trkpt>
      <trkpt lat="37.528640" lon="-119.622680">
        <ele>1406.884</ele>
        <time>2018-12-28T04:50:15Z</time>
      </trkpt>
      <trkpt lat="37.528520" lon="-119.622540">
        <ele>1407.040</ele>
        <time>2018-12-28T04:50:35Z</time>
      </trkpt>
      <trkpt lat="37.528440" lon="-119.622470">
        <ele>1407.249</ele>
        <time>2018-12-28T04:50:55Z</time>
      </trkpt>
      <trkpt lat="37.528290" lon="-119.622340">
        <ele>1408.818</ele>
        <time>2018-12-28T04:51:15Z</time>
      </trkpt>
      <trkpt lat="37.528120" lon="-119.622240">
        <ele>1410.398</ele>
        <time>2018-12-28T04:51:35Z</time>
      </trkpt>
      <trkpt lat="37.527990" lon="-119.622160">
        <ele>1411.217</ele>
        <time>2018-12-28T04:51:55Z</time>
      </trkpt>
      <trkpt lat="37.527890" lon="-119.622110">
        <ele>1411.408</ele>
        <time>2018-12-28T04:52:15Z</time>
      </trkpt>
      <trkpt lat="37.527530" lon="-119.621920">
        <ele>1410.284</ele>
        <time>2018-12-28T04:52:35Z</time>
      </trkpt>
      <trkpt lat="37.527290" lon="-119.621790">
        <ele>1409.892</ele>
        <time>2018-12-28T04:52:55Z</time>
      </trkpt>
      <trkpt lat="37.527210" lon="-119.621730">
        <ele>1410.097</ele>
        <time>2018-12-28T04:53:15Z</time>
      </trkpt>
      <trkpt lat="37.527140" lon="-119.621670">
        <ele>1410.377</ele>
        <time>2018-12-28T04:53:35Z</time>
      </trkpt>
      <trkpt lat="37.527060" lon="-119.621610">
        <ele>1410.441</ele>
        <time>2018-12-28T04:53:55Z</time>
      </trkpt>
      <trkpt lat="37.526950" lon="-119.621480">
        <ele>1410.811</ele>
        <time>2018-12-28T04:54:15Z</time>
      </trkpt>
      <trkpt lat="37.526880" lon="-119.621370">
        <ele>1411.347</ele>
        <time>2018-12-28T04:54:35Z</time>
      </trkpt>
      <trkpt lat="37.526820" lon="-119.621260">
        <ele>1411.976</ele>
        <time>2018-12-28T04:54:55Z</time>
      </trkpt>
      <trkpt lat="37.526780" lon="-119.621160">
        <ele>1412.082</ele>
        <time>2018-12-28T04:55:15Z</time>
      </trkpt>
      <trkpt lat="37.526730" lon="-119.621000">
        <ele>1412.143</ele>
        <time>2018-12-28T04:55:35Z</time>
      </trkpt>
      <trkpt lat="37.526680" lon="-119.620800">
        <ele>1411.617</ele>
        <time>2018-12-28T04:55:55Z</time>
      </trkpt>
      <trkpt lat="37.526630" lon="-119.620460">
        <ele>1410.208</ele>
        <time>2018-12-28T04:56:15Z</time>
      </trkpt>
      <trkpt lat="37.526590" lon="-119.620280">
        <ele>1411.161</ele>
        <time>2018-12-28T04:56:35Z</time>
      </trkpt>
      <trkpt lat="37.526540" lon="-119.620110">
        <ele>1413.229</ele>
        <time>2018-12-28T04:56:55Z</time>
      </trkpt>
      <trkpt lat="37.526500" lon="-119.619980">
        <ele>1416.184</ele>
        <time>2018-12-28T04:57:15Z</time>
      </trkpt>
      <trkpt lat="37.526440" lon="-119.619850">
        <ele>1419.194</ele>
        <time>2018-12-28T04:57:35Z</time>
      </trkpt>
      <trkpt lat="37.526370" lon="-119.619700">
        <ele>1422.188</ele>
        <time>2018-12-28T04:57:55Z</time>
      </trkpt>
      <trkpt lat="37.526300" lon="-119.619580">
        <ele>1423.968</ele>
        <time>2018-12-28T04:58:15Z</time>
      </trkpt>
      <trkpt lat="37.526250" lon="-119.619510">
        <ele>1424.854</ele>
        <time>2018-12-28T04:58:35Z</time>
      </trkpt>
      <trkpt lat="37.526180" lon="-119.619410">
        <ele>1425.753</ele>
        <time>2018-12-28T04:58:55Z</time>
      </trkpt>
      <trkpt lat="37.526090" lon="-119.619310">
        <ele>1425.996</ele>
        <time>2018-12-28T04:59:15Z</time>
      </trkpt>
      <trkpt lat="37.526030" lon="-119.619250">
        <ele>1425.731</ele>
        <time>2018-12-28T04:59:35Z</time>
      </trkpt>
      <trkpt lat="37.525940" lon="-119.619170">
        <ele>1425.424</ele>
        <time>2018-12-28T04:59:55Z</time>
      </trkpt>
      <trkpt lat="37.525470" lon="-119.618790">
        <ele>1432.308</ele>
        <time>2018-12-28T05:00:15Z</time>
      </trkpt>
      <trkpt lat="37.525310" lon="-119.618660">
        <ele>1433.842</ele>
        <time>2018-12-28T05:00:35Z</time>
      </trkpt>
      <trkpt lat="37.524850" lon="-119.618290">
        <ele>1436.190</ele>
        <time>2018-12-28T05:00:55Z</time>
      </trkpt>
      <trkpt lat="37.524730" lon="-119.618190">
        <ele>1435.425</ele>
        <time>2018-12-28T05:01:15Z</time>
      </trkpt>
      <trkpt lat="37.524620" lon="-119.618120">
        <ele>1434.165</ele>
        <time>2018-12-28T05:01:35Z</time>
      </trkpt>
      <trkpt lat="37.524520" lon="-119.618080">
        <ele>1432.439</ele>
        <time>2018-12-28T05:01:55Z</time>
      </trkpt>
      <trkpt lat="37.524410" lon="-119.618050">
        <ele>1430.239</ele>
        <time>2018-12-28T05:02:15Z</time>
      </trkpt>
      <trkpt lat="37.524310" lon="-119.618030">
        <ele>1428.135</ele>
        <time>2018-12-28T05:02:35Z</time>
      </trkpt>
      <trkpt lat="37.524210" lon="-119.618040">
        <ele>1429.274</ele>
        <time>2018-12-28T05:02:55Z</time>
      </trkpt>
      <trkpt lat="37.524140" lon="-119.618060">
        <ele>1430.023</ele>
        <time>2018-12-28T05:03:15Z</time>
      </trkpt>
      <trkpt lat="37.524050" lon="-119.618100">
        <ele>1430.883</ele>
        <time>2018-12-28T05:03:35Z</time>
      </trkpt>
      <trkpt lat="37.523920" lon="-119.618180">
        <ele>1432.611</ele>
        <time>2018-12-28T05:03:55Z</time>
      </trkpt>
      <trkpt lat="37.523840" lon="-119.618250">
        <ele>1433.008</ele>
        <time>2018-12-28T05:04:15Z</time>
      </trkpt>
      <trkpt lat="37.523730" lon="-119.618340">
        <ele>1433.545</ele>
        <time>2018-12-28T05:04:35Z</time>
      </trkpt>
      <trkpt lat="37.523590" lon="-119.618450">
        <ele>1434.423</ele>
        <time>2018-12-28T05:04:55Z</time>
      </trkpt>
      <trkpt lat="37.523360" lon="-119.618620">
        <ele>1436.828</ele>
        <time>2018-12-28T05:05:15Z</time>
      </trkpt>
      <trkpt lat="37.523240" lon="-119.618700">
        <ele>1440.268</ele>
        <time>2018-12-28T05:05:35Z</time>
      </trkpt>
      <trkpt lat="37.523140" lon="-119.618740">
        <ele>1442.482</ele>
        <time>2018-12-28T05:05:55Z</time>
      </trkpt>
      <trkpt lat="37.523010" lon="-119.618790">
        <ele>1443.492</ele>
        <time>2018-12-28T05:06:15Z</time>
      </trkpt>
      <trkpt lat="37.522910" lon="-119.618820">
        <ele>1444.258</ele>
        <time>2018-12-28T05:06:35Z</time>
      </trkpt>
      <trkpt lat="37.522760" lon="-119.618830">
        <ele>1444.537</ele>
        <time>2018-12-28T05:06:55Z</time>
      </trkpt>
      <trkpt lat="37.522560" lon="-119.618830">
        <ele>1444.866</ele>
        <time>2018-12-28T05:07:15Z</time>
      </trkpt>
      <trkpt lat="37.522450" lon="-119.618820">
        <ele>1444.929</ele>
        <time>2018-12-28T05:07:35Z</time>
      </trkpt>
      <trkpt lat="37.522320" lon="-119.618820">
        <ele>1444.921</ele>
        <time>2018-12-28T05:07:55Z</time>
      </trkpt>
      <trkpt lat="37.522080" lon="-119.618840">
        <ele>1444.908</ele>
        <time>2018-12-28T05:08:15Z</time>
      </trkpt>
      <trkpt lat="37.522010" lon="-119.618860">
        <ele>1444.999</ele>
        <time>2018-12-28T05:08:35Z</time>
      </trkpt>
      <trkpt lat="37.521890" lon="-119.618920">
        <ele>1444.537</ele>
        <time>2018-12-28T05:08:55Z</time>
      </trkpt>
      <trkpt lat="37.521810" lon="-119.618990">
        <ele>1443.912</ele>
        <time>2018-12-28T05:09:15Z</time>
      </trkpt>
      <trkpt lat="37.521740" lon="-119.619070">
        <ele>1443.362</ele>
        <time>2018-12-28T05:09:35Z</time>
      </trkpt>
      <trkpt lat="37.521690" lon="-119.619150">
        <ele>1442.866</ele>
        <time>2018-12-28T05:09:55Z</time>
      </trkpt>
      <trkpt lat="37.521640" lon="-119.619240">
        <ele>1442.276</ele>
        <time>2018-12-28T05:10:15Z</time>
      </trkpt>
      <trkpt lat="37.521580" lon="-119.619420">
        <ele>1441.892</ele>
        <time>2018-12-28T05:10:35Z</time>
      </trkpt>
      <trkpt lat="37.521540" lon="-119.619560">
        <ele>1442.111</ele>
        <time>2018-12-28T05:10:55Z</time>
      </trkpt>
      <trkpt lat="37.521510" lon="-119.619690">
        <ele>1442.496</ele>
        <time>2018-12-28T05:11:15Z</time>
      </trkpt>
      <trkpt lat="37.521470" lon="-119.619800">
        <ele>1442.831</ele>
        <time>2018-12-28T05:11:35Z</time>
      </trkpt>
      <trkpt lat="37.521420" lon="-119.619920">
        <ele>1443.224</ele>
        <time>2018-12-28T05:11:55Z</time>
      </trkpt>
      <trkpt lat="37.521380" lon="-119.620000">
        <ele>1443.508</ele>
        <time>2018-12-28T05:12:15Z</time>
      </trkpt>
      <trkpt lat="37.521320" lon="-119.620130">
        <ele>1443.922</ele>
        <time>2018-12-28T05:12:35Z</time>
      </trkpt>
      <trkpt lat="37.521180" lon="-119.620400">
        <ele>1445.130</ele>
        <time>2018-12-28T05:12:55Z</time>
      </trkpt>
      <trkpt lat="37.521160" lon="-119.620460">
        <ele>1445.445</ele>
        <time>2018-12-28T05:13:15Z</time>
      </trkpt>
      <trkpt lat="37.521140" lon="-119.620530">
        <ele>1445.725</ele>
        <time>2018-12-28T05:13:35Z</time>
      </trkpt>
      <trkpt lat="37.521130" lon="-119.620600">
        <ele>1445.839</ele>
        <time>2018-12-28T05:13:55Z</time>
      </trkpt>
      <trkpt lat="37.521110" lon="-119.620660">
        <ele>1446.229</ele>
        <time>2018-12-28T05:14:15Z</time>
      </trkpt>
      <trkpt lat="37.521110" lon="-119.620730">
        <ele>1446.535</ele>
        <time>2018-12-28T05:14:35Z</time>
      </trkpt>
      <trkpt lat="37.521110" lon="-119.620810">
        <ele>1447.124</ele>
        <time>2018-12-28T05:14:55Z</time>
      </trkpt>
      <trkpt lat="37.521120" lon="-119.620900">
        <ele>1447.694</ele>
        <time>2018-12-28T05:15:15Z</time>
      </trkpt>
      <trkpt lat="37.521140" lon="-119.621060">
        <ele>1448.757</ele>
        <time>2018-12-28T05:15:35Z</time>
      </trkpt>
      <trkpt lat="37.521200" lon="-119.621250">
        <ele>1448.822</ele>
        <time>2018-12-28T05:15:55Z</time>
      </trkpt>
      <trkpt lat="37.521270" lon="-119.621480">
        <ele>1448.608</ele>
        <time>2018-12-28T05:16:15Z</time>
      </trkpt>
      <trkpt lat="37.521330" lon="-119.621670">
        <ele>1450.592</ele>
        <time>2018-12-28T05:16:35Z</time>
      </trkpt>
      <trkpt lat="37.521370" lon="-119.621830">
        <ele>1452.150</ele>
        <time>2018-12-28T05:16:55Z</time>
      </trkpt>
      <trkpt lat="37.521390" lon="-119.621910">
        <ele>1452.435</ele>
        <time>2018-12-28T05:17:15Z</time>
      </trkpt>
      <trkpt lat="37.521420" lon="-119.622040">
        <ele>1453.085</ele>
        <time>2018-12-28T05:17:35Z</time>
      </trkpt>
      <trkpt lat="37.521430" lon="-119.622120">
        <ele>1453.459</ele>
        <time>2018-12-28T05:17:55Z</time>
      </trkpt>
      <trkpt lat="37.521440" lon="-119.622190">
        <ele>1453.449</ele>
        <time>2018-12-28T05:18:15Z</time>
      </trkpt>
      <trkpt lat="37.521440" lon="-119.622320">
        <ele>1453.965</ele>
        <time>2018-12-28T05:18:35Z</time>
      </trkpt>
      <trkpt lat="37.521430" lon="-119.622420">
        <ele>1454.284</ele>
        <time>2018-12-28T05:18:55Z</time>
      </trkpt>
      <trkpt lat="37.521420" lon="-119.622490">
        <ele>1454.387</ele>
        <time>2018-12-28T05:19:15Z</time>
      </trkpt>
      <trkpt lat="37.521390" lon="-119.622640">
        <ele>1454.642</ele>
        <time>2018-12-28T05:19:35Z</time>
      </trkpt>
      <trkpt lat="37.521360" lon="-119.622760">
        <ele>1454.426</ele>
        <time>2018-12-28T05:19:55Z</time>
      </trkpt>
      <trkpt lat="37.521330" lon="-119.622830">
        <ele>1454.308</ele>
        <time>2018-12-28T05:20:15Z</time>
      </trkpt>
      <trkpt lat="37.521310" lon="-119.622890">
        <ele>1454.231</ele>
        <time>2018-12-28T05:20:35Z</time>
      </trkpt>
      <trkpt lat="37.521280" lon="-119.622930">
        <ele>1454.119</ele>
        <time>2018-12-28T05:20:55Z</time>
      </trkpt>
      <trkpt lat="37.521240" lon="-119.623000">
        <ele>1453.254</ele>
        <time>2018-12-28T05:21:15Z</time>
      </trkpt>
      <trkpt lat="37.521200" lon="-119.623050">
        <ele>1452.224</ele>
        <time>2018-12-28T05:21:35Z</time>
      </trkpt>
      <trkpt lat="37.521170" lon="-119.623090">
        <ele>1451.468</ele>
        <time>2018-12-28T05:21:55Z</time>
      </trkpt>
      <trkpt lat="37.521130" lon="-119.623130">
        <ele>1450.338</ele>
        <time>2018-12-28T05:22:15Z</time>
      </trkpt>
      <trkpt lat="37.521020" lon="-119.623200">
        <ele>1447.884</ele>
        <time>2018-12-28T05:22:35Z</time>
      </trkpt>
      <trkpt lat="37.520920" lon="-119.623270">
        <ele>1445.383</ele>
        <time>2018-12-28T05:22:55Z</time>
      </trkpt>
      <trkpt lat="37.520800" lon="-119.623330">
        <ele>1444.246</ele>
        <time>2018-12-28T05:23:15Z</time>
      </trkpt>
      <trkpt lat="37.520250" lon="-119.623630">
        <ele>1444.888</ele>
        <time>2018-12-28T05:23:35Z</time>
      </trkpt>
      <trkpt lat="37.519500" lon="-119.624080">
        <ele>1445.216</ele>
        <time>2018-12-28T05:23:55Z</time>
      </trkpt>
      <trkpt lat="37.519240" lon="-119.624230">
        <ele>1445.608</ele>
        <time>2018-12-28T05:24:15Z</time>
      </trkpt>
      <trkpt lat="37.519110" lon="-119.624340">
        <ele>1444.637</ele>
        <time>2018-12-28T05:24:35Z</time>
      </trkpt>
      <trkpt lat="37.519070" lon="-119.624390">
        <ele>1444.595</ele>
        <time>2018-12-28T05:24:55Z</time>
      </trkpt>
      <trkpt lat="37.519040" lon="-119.624430">
        <ele>1444.750</ele>
        <time>2018-12-28T05:25:15Z</time>
      </trkpt>
      <trkpt lat="37.519010" lon="-119.624470">
        <ele>1444.580</ele>
        <time>2018-12-28T05:25:35Z</time>
      </trkpt>
      <trkpt lat="37.518970" lon="-119.624570">
        <ele>1443.434</ele>
        <time>2018-12-28T05:25:55Z</time>
      </trkpt>
      <trkpt lat="37.518940" lon="-119.624650">
        <ele>1443.524</ele>
        <time>2018-12-28T05:26:15Z</time>
      </trkpt>
      <trkpt lat="37.518920" lon="-119.624690">
        <ele>1443.980</ele>
        <time>2018-12-28T05:26:35Z</time>
      </trkpt>
      <trkpt lat="37.518900" lon="-119.624760">
        <ele>1444.829</ele>
        <time>2018-12-28T05:26:55Z</time>
      </trkpt>
      <trkpt lat="37.518890" lon="-119.624830">
        <ele>1445.826</ele>
        <time>2018-12-28T05:27:15Z</time>
      </trkpt>
      <trkpt lat="37.518880" lon="-119.624890">
        <ele>1447.347</ele>
        <time>2018-12-28T05:27:35Z</time>
      </trkpt>
      <trkpt lat="37.518870" lon="-119.624990">
        <ele>1450.411</ele>
        <time>2018-12-28T05:27:55Z</time>
      </trkpt>
      <trkpt lat="37.518870" lon="-119.625110">
        <ele>1453.908</ele>
        <time>2018-12-28T05:28:15Z</time>
      </trkpt>
      <trkpt lat="37.518860" lon="-119.625210">
        <ele>1456.295</ele>
        <time>2018-12-28T05:28:35Z</time>
      </trkpt>
      <trkpt lat="37.518850" lon="-119.625310">
        <ele>1458.163</ele>
        <time>2018-12-28T05:28:55Z</time>
      </trkpt>
      <trkpt lat="37.518820" lon="-119.625410">
        <ele>1460.488</ele>
        <time>2018-12-28T05:29:15Z</time>
      </trkpt>
      <trkpt lat="37.518790" lon="-119.625500">
        <ele>1461.048</ele>
        <time>2018-12-28T05:29:35Z</time>
      </trkpt>
      <trkpt lat="37.518750" lon="-119.625600">
        <ele>1461.252</ele>
        <time>2018-12-28T05:29:55Z</time>
      </trkpt>
      <trkpt lat="37.518710" lon="-119.625660">
        <ele>1461.342</ele>
        <time>2018-12-28T05:30:15Z</time>
      </trkpt>
      <trkpt lat="37.518680" lon="-119.625690">
        <ele>1461.328</ele>
        <time>2018-12-28T05:30:35Z</time>
      </trkpt>
      <trkpt lat="37.518630" lon="-119.625760">
        <ele>1459.997</ele>
        <time>2018-12-28T05:30:55Z</time>
      </trkpt>
      <trkpt lat="37.518560" lon="-119.625820">
        <ele>1458.724</ele>
        <time>2018-12-28T05:31:15Z</time>
      </trkpt>
      <trkpt lat="37.518500" lon="-119.625860">
        <ele>1457.904</ele>
        <time>2018-12-28T05:31:35Z</time>
      </trkpt>
      <trkpt lat="37.518430" lon="-119.625900">
        <ele>1457.414</ele>
        <time>2018-12-28T05:31:55Z</time>
      </trkpt>
      <trkpt lat="37.518370" lon="-119.625920">
        <ele>1457.408</ele>
        <time>2018-12-28T05:32:15Z</time>
      </trkpt>
      <trkpt lat="37.518320" lon="-119.625930">
        <ele>1457.635</ele>
        <time>2018-12-28T05:32:35Z</time>
      </trkpt>
      <trkpt lat="37.518260" lon="-119.625930">
        <ele>1458.323</ele>
        <time>2018-12-28T05:32:55Z</time>
      </trkpt>
      <trkpt lat="37.518160" lon="-119.625930">
        <ele>1459.158</ele>
        <time>2018-12-28T05:33:15Z</time>
      </trkpt>
      <trkpt lat="37.518100" lon="-119.625920">
        <ele>1459.588</ele>
        <time>2018-12-28T05:33:35Z</time>
      </trkpt>
      <trkpt lat="37.518020" lon="-119.625900">
        <ele>1460.282</ele>
        <time>2018-12-28T05:33:55Z</time>
      </trkpt>
      <trkpt lat="37.517960" lon="-119.625880">
        <ele>1460.952</ele>
        <time>2018-12-28T05:34:15Z</time>
      </trkpt>
      <trkpt lat="37.517910" lon="-119.625860">
        <ele>1461.558</ele>
        <time>2018-12-28T05:34:35Z</time>
      </trkpt>
      <trkpt lat="37.517610" lon="-119.625720">
        <ele>1463.577</ele>
        <time>2018-12-28T05:34:55Z</time>
      </trkpt>
      <trkpt lat="37.517500" lon="-119.625660">
        <ele>1464.552</ele>
        <time>2018-12-28T05:35:15Z</time>
      </trkpt>
      <trkpt lat="37.517290" lon="-119.625570">
        <ele>1464.953</ele>
        <time>2018-12-28T05:35:35Z</time>
      </trkpt>
      <trkpt lat="37.517150" lon="-119.625510">
        <ele>1464.708</ele>
        <time>2018-12-28T05:35:55Z</time>
      </trkpt>
      <trkpt lat="37.517040" lon="-119.625480">
        <ele>1464.108</ele>
        <time>2018-12-28T05:36:15Z</time>
      </trkpt>
      <trkpt lat="37.516950" lon="-119.625450">
        <ele>1464.078</ele>
        <time>2018-12-28T05:36:35Z</time>
      </trkpt>
      <trkpt lat="37.516890" lon="-119.625430">
        <ele>1464.086</ele>
        <time>2018-12-28T05:36:55Z</time>
      </trkpt>
      <trkpt lat="37.516840" lon="-119.625400">
        <ele>1464.671</ele>
        <time>2018-12-28T05:37:15Z</time>
      </trkpt>
      <trkpt lat="37.516760" lon="-119.625360">
        <ele>1465.691</ele>
        <time>2018-12-28T05:37:35Z</time>
      </trkpt>
      <trkpt lat="37.516590" lon="-119.625280">
        <ele>1467.335</ele>
        <time>2018-12-28T05:37:55Z</time>
      </trkpt>
      <trkpt lat="37.516470" lon="-119.625240">
        <ele>1467.935</ele>
        <time>2018-12-28T05:38:15Z</time>
      </trkpt>
      <trkpt lat="37.516320" lon="-119.625210">
        <ele>1468.511</ele>
        <time>2018-12-28T05:38:35Z</time>
      </trkpt>
      <trkpt lat="37.516240" lon="-119.625200">
        <ele>1468.780</ele>
        <time>2018-12-28T05:38:55Z</time>
      </trkpt>
      <trkpt lat="37.516150" lon="-119.625200">
        <ele>1469.593</ele>
        <time>2018-12-28T05:39:15Z</time>
      </trkpt>
      <trkpt lat="37.516070" lon="-119.625210">
        <ele>1470.065</ele>
        <time>2018-12-28T05:39:35Z</time>
      </trkpt>
      <trkpt lat="37.515990" lon="-119.625230">
        <ele>1470.421</ele>
        <time>2018-12-28T05:39:55Z</time>
      </trkpt>
      <trkpt lat="37.515930" lon="-119.625240">
        <ele>1471.308</ele>
        <time>2018-12-28T05:40:15Z</time>
      </trkpt>
      <trkpt lat="37.515860" lon="-119.625260">
        <ele>1472.582</ele>
        <time>2018-12-28T05:40:35Z</time>
      </trkpt>
      <trkpt lat="37.515800" lon="-119.625300">
        <ele>1473.270</ele>
        <time>2018-12-28T05:40:55Z</time>
      </trkpt>
      <trkpt lat="37.515740" lon="-119.625350">
        <ele>1474.195</ele>
        <time>2018-12-28T05:41:15Z</time>
      </trkpt>
      <trkpt lat="37.515680" lon="-119.625400">
        <ele>1475.055</ele>
        <time>2018-12-28T05:41:35Z</time>
      </trkpt>
      <trkpt lat="37.515590" lon="-119.625500">
        <ele>1475.429</ele>
        <time>2018-12-28T05:41:55Z</time>
      </trkpt>
      <trkpt lat="37.515500" lon="-119.625610">
        <ele>1476.199</ele>
        <time>2018-12-28T05:42:15Z</time>
      </trkpt>
      <trkpt lat="37.515380" lon="-119.625760">
        <ele>1477.385</ele>
        <time>2018-12-28T05:42:35Z</time>
      </trkpt>
      <trkpt lat="37.515330" lon="-119.625840">
        <ele>1477.334</ele>
        <time>2018-12-28T05:42:55Z</time>
      </trkpt>
      <trkpt lat="37.515290" lon="-119.625920">
        <ele>1477.064</ele>
        <time>2018-12-28T05:43:15Z</time>
      </trkpt>
      <trkpt lat="37.515270" lon="-119.625970">
        <ele>1476.606</ele>
        <time>2018-12-28T05:43:35Z</time>
      </trkpt>
      <trkpt lat="37.515240" lon="-119.626060">
        <ele>1476.816</ele>
        <time>2018-12-28T05:43:55Z</time>
      </trkpt>
      <trkpt lat="37.515220" lon="-119.626150">
        <ele>1476.808</ele>
        <time>2018-12-28T05:44:15Z</time>
      </trkpt>
      <trkpt lat="37.515210" lon="-119.626370">
        <ele>1477.819</ele>
        <time>2018-12-28T05:44:35Z</time>
      </trkpt>
      <trkpt lat="37.515200" lon="-119.626610">
        <ele>1480.087</ele>
        <time>2018-12-28T05:44:55Z</time>
      </trkpt>
      <trkpt lat="37.515180" lon="-119.626910">
        <ele>1481.492</ele>
        <time>2018-12-28T05:45:15Z</time>
      </trkpt>
      <trkpt lat="37.515150" lon="-119.627190">
        <ele>1482.852</ele>
        <time>2018-12-28T05:45:35Z</time>
      </trkpt>
      <trkpt lat="37.515120" lon="-119.627480">
        <ele>1483.956</ele>
        <time>2018-12-28T05:45:55Z</time>
      </trkpt>
      <trkpt lat="37.514980" lon="-119.628110">
        <ele>1489.376</ele>
        <time>2018-12-28T05:46:15Z</time>
      </trkpt>
      <trkpt lat="37.514820" lon="-119.628920">
        <ele>1494.622</ele>
        <time>2018-12-28T05:46:35Z</time>
      </trkpt>
      <trkpt lat="37.514760" lon="-119.629230">
        <ele>1497.161</ele>
        <time>2018-12-28T05:46:55Z</time>
      </trkpt>
      <trkpt lat="37.514580" lon="-119.630070">
        <ele>1501.777</ele>
        <time>2018-12-28T05:47:15Z</time>
      </trkpt>
      <trkpt lat="37.514540" lon="-119.630290">
        <ele>1502.661</ele>
        <time>2018-12-28T05:47:35Z</time>
      </trkpt>
      <trkpt lat="37.514480" lon="-119.630510">
        <ele>1504.027</ele>
        <time>2018-12-28T05:47:55Z</time>
      </trkpt>
      <trkpt lat="37.514440" lon="-119.630620">
        <ele>1504.708</ele>
        <time>2018-12-28T05:48:15Z</time>
      </trkpt>
      <trkpt lat="37.514400" lon="-119.630690">
        <ele>1505.580</ele>
        <time>2018-12-28T05:48:35Z</time>
      </trkpt>
      <trkpt lat="37.514320" lon="-119.630850">
        <ele>1506.858</ele>
        <time>2018-12-28T05:48:55Z</time>
      </trkpt>
      <trkpt lat="37.514180" lon="-119.631050">
        <ele>1509.023</ele>
        <time>2018-12-28T05:49:15Z</time>
      </trkpt>
      <trkpt lat="37.514110" lon="-119.631170">
        <ele>1510.233</ele>
        <time>2018-12-28T05:49:35Z</time>
      </trkpt>
      <trkpt lat="37.514070" lon="-119.631260">
        <ele>1511.077</ele>
        <time>2018-12-28T05:49:55Z</time>
      </trkpt>
      <trkpt lat="37.514040" lon="-119.631330">
        <ele>1512.287</ele>
        <time>2018-12-28T05:50:15Z</time>
      </trkpt>
      <trkpt lat="37.513980" lon="-119.631490">
        <ele>1515.143</ele>
        <time>2018-12-28T05:50:35Z</time>
      </trkpt>
      <trkpt lat="37.513960" lon="-119.631630">
        <ele>1515.562</ele>
        <time>2018-12-28T05:50:55Z</time>
      </trkpt>
      <trkpt lat="37.513950" lon="-119.631740">
        <ele>1515.461</ele>
        <time>2018-12-28T05:51:15Z</time>
      </trkpt>
      <trkpt lat="37.513950" lon="-119.631820">
        <ele>1515.321</ele>
        <time>2018-12-28T05:51:35Z</time>
      </trkpt>
      <trkpt lat="37.513960" lon="-119.631930">
        <ele>1515.513</ele>
        <time>2018-12-28T05:51:55Z</time>
      </trkpt>
      <trkpt lat="37.513980" lon="-119.632040">
        <ele>1515.508</ele>
        <time>2018-12-28T05:52:15Z</time>
      </trkpt>
      <trkpt lat="37.514000" lon="-119.632140">
        <ele>1515.689</ele>
        <time>2018-12-28T05:52:35Z</time>
      </trkpt>
      <trkpt lat="37.514070" lon="-119.632320">
        <ele>1515.597</ele>
        <time>2018-12-28T05:52:55Z</time>
      </trkpt>
      <trkpt lat="37.514280" lon="-119.632700">
        <ele>1514.722</ele>
        <time>2018-12-28T05:53:15Z</time>
      </trkpt>
      <trkpt lat="37.514370" lon="-119.632880">
        <ele>1514.552</ele>
        <time>2018-12-28T05:53:35Z</time>
      </trkpt>
      <trkpt lat="37.514410" lon="-119.633020">
        <ele>1514.616</ele>
        <time>2018-12-28T05:53:55Z</time>
      </trkpt>
      <trkpt lat="37.514430" lon="-119.633120">
        <ele>1514.846</ele>
        <time>2018-12-28T05:54:15Z</time>
      </trkpt>
      <trkpt lat="37.514450" lon="-119.633300">
        <ele>1514.242</ele>
        <time>2018-12-28T05:54:35Z</time>
      </trkpt>
      <trkpt lat="37.514440" lon="-119.633400">
        <ele>1514.041</ele>
        <time>2018-12-28T05:54:55Z</time>
      </trkpt>
      <trkpt lat="37.514440" lon="-119.633490">
        <ele>1513.479</ele>
        <time>2018-12-28T05:55:15Z</time>
      </trkpt>
      <trkpt lat="37.514410" lon="-119.633590">
        <ele>1513.205</ele>
        <time>2018-12-28T05:55:35Z</time>
      </trkpt>
      <trkpt lat="37.514370" lon="-119.633730">
        <ele>1513.025</ele>
        <time>2018-12-28T05:55:55Z</time>
      </trkpt>
      <trkpt lat="37.514320" lon="-119.633840">
        <ele>1513.108</ele>
        <time>2018-12-28T05:56:15Z</time>
      </trkpt>
      <trkpt lat="37.514270" lon="-119.633940">
        <ele>1513.040</ele>
        <time>2018-12-28T05:56:35Z</time>
      </trkpt>
      <trkpt lat="37.514230" lon="-119.634000">
        <ele>1513.248</ele>
        <time>2018-12-28T05:56:55Z</time>
      </trkpt>
      <trkpt lat="37.514180" lon="-119.634060">
        <ele>1513.473</ele>
        <time>2018-12-28T05:57:15Z</time>
      </trkpt>
      <trkpt lat="37.514120" lon="-119.634130">
        <ele>1513.663</ele>
        <time>2018-12-28T05:57:35Z</time>
      </trkpt>
      <trkpt lat="37.514040" lon="-119.634190">
        <ele>1514.677</ele>
        <time>2018-12-28T05:57:55Z</time>
      </trkpt>
      <trkpt lat="37.513860" lon="-119.634290">
        <ele>1516.547</ele>
        <time>2018-12-28T05:58:15Z</time>
      </trkpt>
      <trkpt lat="37.513160" lon="-119.634510">
        <ele>1525.543</ele>
        <time>2018-12-28T05:58:35Z</time>
      </trkpt>
      <trkpt lat="37.512870" lon="-119.634600">
        <ele>1527.692</ele>
        <time>2018-12-28T05:58:55Z</time>
      </trkpt>
      <trkpt lat="37.512440" lon="-119.634720">
        <ele>1529.958</ele>
        <time>2018-12-28T05:59:15Z</time>
      </trkpt>
      <trkpt lat="37.511890" lon="-119.634870">
        <ele>1536.352</ele>
        <time>2018-12-28T05:59:35Z</time>
      </trkpt>
      <trkpt lat="37.511570" lon="-119.634940">
        <ele>1537.417</ele>
        <time>2018-12-28T05:59:55Z</time>
      </trkpt>
      <trkpt lat="37.511240" lon="-119.635020">
        <ele>1539.108</ele>
        <time>2018-12-28T06:00:15Z</time>
      </trkpt>
      <trkpt lat="37.510980" lon="-119.635080">
        <ele>1539.868</ele>
        <time>2018-12-28T06:00:35Z</time>
      </trkpt>
      <trkpt lat="37.510670" lon="-119.635140">
        <ele>1538.996</ele>
        <time>2018-12-28T06:00:55Z</time>
      </trkpt>
      <trkpt lat="37.510500" lon="-119.635170">
        <ele>1539.941</ele>
        <time>2018-12-28T06:01:15Z</time>
      </trkpt>
      <trkpt lat="37.510370" lon="-119.635170">
        <ele>1541.161</ele>
        <time>2018-12-28T06:01:35Z</time>
      </trkpt>
      <trkpt lat="37.510300" lon="-119.635170">
        <ele>1541.615</ele>
        <time>2018-12-28T06:01:55Z</time>
      </trkpt>
      <trkpt lat="37.510210" lon="-119.635170">
        <ele>1542.275</ele>
        <time>2018-12-28T06:02:15Z</time>
      </trkpt>
      <trkpt lat="37.510110" lon="-119.635140">
        <ele>1543.561</ele>
        <time>2018-12-28T06:02:35Z</time>
      </trkpt>
      <trkpt lat="37.510000" lon="-119.635100">
        <ele>1544.610</ele>
        <time>2018-12-28T06:02:55Z</time>
      </trkpt>
      <trkpt lat="37.509900" lon="-119.635060">
        <ele>1545.691</ele>
        <time>2018-12-28T06:03:15Z</time>
      </trkpt>
      <trkpt lat="37.509760" lon="-119.634980">
        <ele>1548.181</ele>
        <time>2018-12-28T06:03:35Z</time>
      </trkpt>
      <trkpt lat="37.509580" lon="-119.634900">
        <ele>1551.719</ele>
        <time>2018-12-28T06:03:55Z</time>
      </trkpt>
      <trkpt lat="37.509470" lon="-119.634870">
        <ele>1552.208</ele>
        <time>2018-12-28T06:04:15Z</time>
      </trkpt>
      <trkpt lat="37.509360" lon="-119.634860">
        <ele>1552.432</ele>
        <time>2018-12-28T06:04:35Z</time>
      </trkpt>
      <trkpt lat="37.509260" lon="-119.634860">
        <ele>1553.020</ele>
        <time>2018-12-28T06:04:55Z</time>
      </trkpt>
      <trkpt lat="37.509160" lon="-119.634890">
        <ele>1553.615</ele>
        <time>2018-12-28T06:05:15Z</time>
      </trkpt>
      <trkpt lat="37.509030" lon="-119.634950">
        <ele>1553.675</ele>
        <time>2018-12-28T06:05:35Z</time>
      </trkpt>
      <trkpt lat="37.508930" lon="-119.635030">
        <ele>1553.239</ele>
        <time>2018-12-28T06:05:55Z</time>
      </trkpt>
      <trkpt lat="37.508790" lon="-119.635130">
        <ele>1552.749</ele>
        <time>2018-12-28T06:06:15Z</time>
      </trkpt>
      <trkpt lat="37.508620" lon="-119.635250">
        <ele>1552.915</ele>
        <time>2018-12-28T06:06:35Z</time>
      </trkpt>
      <trkpt lat="37.508550" lon="-119.635280">
        <ele>1553.654</ele>
        <time>2018-12-28T06:06:55Z</time>
      </trkpt>
      <trkpt lat="37.508500" lon="-119.635300">
        <ele>1554.199</ele>
        <time>2018-12-28T06:07:15Z</time>
      </trkpt>
      <trkpt lat="37.508430" lon="-119.635320">
        <ele>1554.307</ele>
        <time>2018-12-28T06:07:35Z</time>
      </trkpt>
      <trkpt lat="37.508360" lon="-119.635330">
        <ele>1554.527</ele>
        <time>2018-12-28T06:07:55Z</time>
      </trkpt>
      <trkpt lat="37.508300" lon="-119.635330">
        <ele>1554.808</ele>
        <time>2018-12-28T06:08:15Z</time>
      </trkpt>
      <trkpt lat="37.508230" lon="-119.635330">
        <ele>1555.282</ele>
        <time>2018-12-28T06:08:35Z</time>
      </trkpt>
      <trkpt lat="37.508120" lon="-119.635310">
        <ele>1555.420</ele>
        <time>2018-12-28T06:08:55Z</time>
      </trkpt>
      <trkpt lat="37.508030" lon="-119.635280">
        <ele>1555.595</ele>
        <time>2018-12-28T06:09:15Z</time>
      </trkpt>
      <trkpt lat="37.507920" lon="-119.635220">
        <ele>1556.175</ele>
        <time>2018-12-28T06:09:35Z</time>
      </trkpt>
      <trkpt lat="37.507800" lon="-119.635120">
        <ele>1557.079</ele>
        <time>2018-12-28T06:09:55Z</time>
      </trkpt>
      <trkpt lat="37.507710" lon="-119.635030">
        <ele>1557.529</ele>
        <time>2018-12-28T06:10:15Z</time>
      </trkpt>
      <trkpt lat="37.507600" lon="-119.634900">
        <ele>1559.015</ele>
        <time>2018-12-28T06:10:35Z</time>
      </trkpt>
      <trkpt lat="37.507500" lon="-119.634740">
        <ele>1561.644</ele>
        <time>2018-12-28T06:10:55Z</time>
      </trkpt>
      <trkpt lat="37.507430" lon="-119.634610">
        <ele>1563.095</ele>
        <time>2018-12-28T06:11:15Z</time>
      </trkpt>
      <trkpt lat="37.507370" lon="-119.634470">
        <ele>1563.949</ele>
        <time>2018-12-28T06:11:35Z</time>
      </trkpt>
      <trkpt lat="37.507300" lon="-119.634270">
        <ele>1564.823</ele>
        <time>2018-12-28T06:11:55Z</time>
      </trkpt>
      <trkpt lat="37.507270" lon="-119.634090">
        <ele>1566.508</ele>
        <time>2018-12-28T06:12:15Z</time>
      </trkpt>
      <trkpt lat="37.507220" lon="-119.633780">
        <ele>1567.222</ele>
        <time>2018-12-28T06:12:35Z</time>
      </trkpt>
      <trkpt lat="37.507200" lon="-119.633610">
        <ele>1567.150</ele>
        <time>2018-12-28T06:12:55Z</time>
      </trkpt>
      <trkpt lat="37.507180" lon="-119.633440">
        <ele>1566.865</ele>
        <time>2018-12-28T06:13:15Z</time>
      </trkpt>
      <trkpt lat="37.507010" lon="-119.632810">
        <ele>1563.215</ele>
        <time>2018-12-28T06:13:35Z</time>
      </trkpt>
      <trkpt lat="37.507008" lon="-119.632810">
        <ele>1563.219</ele>
        <time>2018-12-28T06:13:55Z</time>
      </trkpt>
      <trkpt lat="37.507000" lon="-119.632810">
        <ele>1563.289</ele>
        <time>2018-12-28T06:14:15Z</time>
      </trkpt>
      <trkpt lat="37.506980" lon="-119.632810">
        <ele>1563.035</ele>
        <time>2018-12-28T06:14:35Z</time>
      </trkpt>
      <trkpt lat="37.506960" lon="-119.632810">
        <ele>1562.884</ele>
        <time>2018-12-28T06:14:55Z</time>
      </trkpt>
      <trkpt lat="37.506940" lon="-119.632800">
        <ele>1562.548</ele>
        <time>2018-12-28T06:15:15Z</time>
      </trkpt>
      <trkpt lat="37.506930" lon="-119.632790">
        <ele>1562.461</ele>
        <time>2018-12-28T06:15:35Z</time>
      </trkpt>
      <trkpt lat="37.506910" lon="-119.632790">
        <ele>1562.217</ele>
        <time>2018-12-28T06:15:55Z</time>
      </trkpt>
      <trkpt lat="37.506890" lon="-119.632770">
        <ele>1561.908</ele>
        <time>2018-12-28T06:16:15Z</time>
      </trkpt>
      <trkpt lat="37.506880" lon="-119.632760">
        <ele>1561.747</ele>
        <time>2018-12-28T06:16:35Z</time>
      </trkpt>
      <trkpt lat="37.506860" lon="-119.632750">
        <ele>1561.435</ele>
        <time>2018-12-28T06:16:55Z</time>
      </trkpt>
      <trkpt lat="37.506840" lon="-119.632720">
        <ele>1561.010</ele>
        <time>2018-12-28T06:17:15Z</time>
      </trkpt>
      <trkpt lat="37.506830" lon="-119.632700">
        <ele>1560.890</ele>
        <time>2018-12-28T06:17:35Z</time>
      </trkpt>
      <trkpt lat="37.506820" lon="-119.632680">
        <ele>1560.634</ele>
        <time>2018-12-28T06:17:55Z</time>
      </trkpt>
      <trkpt lat="37.506810" lon="-119.632660">
        <ele>1560.454</ele>
        <time>2018-12-28T06:18:15Z</time>
      </trkpt>
      <trkpt lat="37.506800" lon="-119.632640">
        <ele>1560.140</ele>
        <time>2018-12-28T06:18:35Z</time>
      </trkpt>
      <trkpt lat="37.506800" lon="-119.632620">
        <ele>1559.999</ele>
        <time>2018-12-28T06:18:55Z</time>
      </trkpt>
      <trkpt lat="37.506790" lon="-119.632600">
        <ele>1559.582</ele>
        <time>2018-12-28T06:19:15Z</time>
      </trkpt>
      <trkpt lat="37.506790" lon="-119.632570">
        <ele>1559.343</ele>
        <time>2018-12-28T06:19:35Z</time>
      </trkpt>
      <trkpt lat="37.506790" lon="-119.632550">
        <ele>1559.217</ele>
        <time>2018-12-28T06:19:55Z</time>
      </trkpt>
      <trkpt lat="37.506790" lon="-119.632530">
        <ele>1559.108</ele>
        <time>2018-12-28T06:20:15Z</time>
      </trkpt>
      <trkpt lat="37.506790" lon="-119.632500">
        <ele>1558.961</ele>
        <time>2018-12-28T06:20:35Z</time>
      </trkpt>
      <trkpt lat="37.506800" lon="-119.632480">
        <ele>1558.979</ele>
        <time>2018-12-28T06:20:55Z</time>
      </trkpt>
      <trkpt lat="37.506810" lon="-119.632460">
        <ele>1559.064</ele>
        <time>2018-12-28T06:21:15Z</time>
      </trkpt>
      <trkpt lat="37.506810" lon="-119.632440">
        <ele>1558.844</ele>
        <time>2018-12-28T06:21:35Z</time>
      </trkpt>
      <trkpt lat="37.506820" lon="-119.632420">
        <ele>1558.778</ele>
        <time>2018-12-28T06:21:55Z</time>
      </trkpt>
      <trkpt lat="37.506830" lon="-119.632400">
        <ele>1558.778</ele>
        <time>2018-12-28T06:22:15Z</time>
      </trkpt>
      <trkpt lat="37.506840" lon="-119.632390">
        <ele>1558.644</ele>
        <time>2018-12-28T06:22:35Z</time>
      </trkpt>
      <trkpt lat="37.506650" lon="-119.631930">
        <ele>1554.573</ele>
        <time>2018-12-28T06:22:55Z</time>
      </trkpt>
      <trkpt lat="37.506240" lon="-119.631370">
        <ele>1550.568</ele>
        <time>2018-12-28T06:23:15Z</time>
      </trkpt>
      <trkpt lat="37.506010" lon="-119.631040">
        <ele>1548.142</ele>
        <time>2018-12-28T06:23:35Z</time>
      </trkpt>
      <trkpt lat="37.505880" lon="-119.630850">
        <ele>1546.826</ele>
        <time>2018-12-28T06:23:55Z</time>
      </trkpt>
      <trkpt lat="37.505790" lon="-119.630720">
        <ele>1545.708</ele>
        <time>2018-12-28T06:24:15Z</time>
      </trkpt>
      <trkpt lat="37.505670" lon="-119.630610">
        <ele>1543.889</ele>
        <time>2018-12-28T06:24:35Z</time>
      </trkpt>
      <trkpt lat="37.505520" lon="-119.630490">
        <ele>1541.237</ele>
        <time>2018-12-28T06:24:55Z</time>
      </trkpt>
      <trkpt lat="37.505440" lon="-119.630440">
        <ele>1539.862</ele>
        <time>2018-12-28T06:25:15Z</time>
      </trkpt>
      <trkpt lat="37.505260" lon="-119.630370">
        <ele>1534.162</ele>
        <time>2018-12-28T06:25:35Z</time>
      </trkpt>
      <trkpt lat="37.505100" lon="-119.630350">
        <ele>1531.186</ele>
        <time>2018-12-28T06:25:55Z</time>
      </trkpt>
      <trkpt lat="37.504970" lon="-119.630370">
        <ele>1532.886</ele>
        <time>2018-12-28T06:26:15Z</time>
      </trkpt>
      <trkpt lat="37.504880" lon="-119.630410">
        <ele>1533.782</ele>
        <time>2018-12-28T06:26:35Z</time>
      </trkpt>
      <trkpt lat="37.504630" lon="-119.630570">
        <ele>1537.191</ele>
        <time>2018-12-28T06:26:55Z</time>
      </trkpt>
      <trkpt lat="37.504310" lon="-119.630810">
        <ele>1539.177</ele>
        <time>2018-12-28T06:27:15Z</time>
      </trkpt>
      <trkpt lat="37.503930" lon="-119.631110">
        <ele>1540.661</ele>
        <time>2018-12-28T06:27:35Z</time>
      </trkpt>
      <trkpt lat="37.503590" lon="-119.631380">
        <ele>1541.027</ele>
        <time>2018-12-28T06:27:55Z</time>
      </trkpt>
      <trkpt lat="37.503310" lon="-119.631580">
        <ele>1540.808</ele>
        <time>2018-12-28T06:28:15Z</time>
      </trkpt>
      <trkpt lat="37.503020" lon="-119.631810">
        <ele>1542.340</ele>
        <time>2018-12-28T06:28:35Z</time>
      </trkpt>
      <trkpt lat="37.502870" lon="-119.631920">
        <ele>1543.278</ele>
        <time>2018-12-28T06:28:55Z</time>
      </trkpt>
      <trkpt lat="37.502610" lon="-119.632120">
        <ele>1542.533</ele>
        <time>2018-12-28T06:29:15Z</time>
      </trkpt>
      <trkpt lat="37.502400" lon="-119.632250">
        <ele>1541.173</ele>
        <time>2018-12-28T06:29:35Z</time>
      </trkpt>
      <trkpt lat="37.502280" lon="-119.632310">
        <ele>1539.847</ele>
        <time>2018-12-28T06:29:55Z</time>
      </trkpt>
      <trkpt lat="37.502170" lon="-119.632330">
        <ele>1539.157</ele>
        <time>2018-12-28T06:30:15Z</time>
      </trkpt>
      <trkpt lat="37.502060" lon="-119.632330">
        <ele>1538.733</ele>
        <time>2018-12-28T06:30:35Z</time>
      </trkpt>
      <trkpt lat="37.501970" lon="-119.632320">
        <ele>1538.492</ele>
        <time>2018-12-28T06:30:55Z</time>
      </trkpt>
      <trkpt lat="37.501890" lon="-119.632290">
        <ele>1538.618</ele>
        <time>2018-12-28T06:31:15Z</time>
      </trkpt>
      <trkpt lat="37.501680" lon="-119.632220">
        <ele>1537.198</ele>
        <time>2018-12-28T06:31:35Z</time>
      </trkpt>
      <trkpt lat="37.501550" lon="-119.632130">
        <ele>1536.017</ele>
        <time>2018-12-28T06:31:55Z</time>
      </trkpt>
      <trkpt lat="37.501290" lon="-119.631960">
        <ele>1533.308</ele>
        <time>2018-12-28T06:32:15Z</time>
      </trkpt>
      <trkpt lat="37.501110" lon="-119.631790">
        <ele>1533.124</ele>
        <time>2018-12-28T06:32:35Z</time>
      </trkpt>
      <trkpt lat="37.500890" lon="-119.631560">
        <ele>1533.112</ele>
        <time>2018-12-28T06:32:55Z</time>
      </trkpt>
      <trkpt lat="37.500680" lon="-119.631330">
        <ele>1533.737</ele>
        <time>2018-12-28T06:33:15Z</time>
      </trkpt>
      <trkpt lat="37.500570" lon="-119.631210">
        <ele>1533.447</ele>
        <time>2018-12-28T06:33:35Z</time>
      </trkpt>
      <trkpt lat="37.500500" lon="-119.631160">
        <ele>1532.941</ele>
        <time>2018-12-28T06:33:55Z</time>
      </trkpt>
      <trkpt lat="37.500390" lon="-119.631100">
        <ele>1532.311</ele>
        <time>2018-12-28T06:34:15Z</time>
      </trkpt>
      <trkpt lat="37.500260" lon="-119.631080">
        <ele>1532.137</ele>
        <time>2018-12-28T06:34:35Z</time>
      </trkpt>
      <trkpt lat="37.500150" lon="-119.631070">
        <ele>1531.946</ele>
        <time>2018-12-28T06:34:55Z</time>
      </trkpt>
      <trkpt lat="37.499850" lon="-119.631120">
        <ele>1530.151</ele>
        <time>2018-12-28T06:35:15Z</time>
      </trkpt>
      <trkpt lat="37.499600" lon="-119.631160">
        <ele>1529.501</ele>
        <time>2018-12-28T06:35:35Z</time>
      </trkpt>
      <trkpt lat="37.499330" lon="-119.631200">
        <ele>1529.211</ele>
        <time>2018-12-28T06:35:55Z</time>
      </trkpt>
      <trkpt lat="37.498980" lon="-119.631240">
        <ele>1528.808</ele>
        <time>2018-12-28T06:36:15Z</time>
      </trkpt>
      <trkpt lat="37.498520" lon="-119.631310">
        <ele>1527.338</ele>
        <time>2018-12-28T06:36:35Z</time>
      </trkpt>
      <trkpt lat="37.498190" lon="-119.631390">
        <ele>1526.586</ele>
        <time>2018-12-28T06:36:55Z</time>
      </trkpt>
      <trkpt lat="37.498120" lon="-119.631420">
        <ele>1526.931</ele>
        <time>2018-12-28T06:37:15Z</time>
      </trkpt>
      <trkpt lat="37.498050" lon="-119.631450">
        <ele>1527.251</ele>
        <time>2018-12-28T06:37:35Z</time>
      </trkpt>
      <trkpt lat="37.498010" lon="-119.631470">
        <ele>1527.465</ele>
        <time>2018-12-28T06:37:55Z</time>
      </trkpt>
      <trkpt lat="37.497970" lon="-119.631490">
        <ele>1527.655</ele>
        <time>2018-12-28T06:38:15Z</time>
      </trkpt>
      <trkpt lat="37.497840" lon="-119.631580">
        <ele>1529.251</ele>
        <time>2018-12-28T06:38:35Z</time>
      </trkpt>
      <trkpt lat="37.497630" lon="-119.631750">
        <ele>1531.340</ele>
        <time>2018-12-28T06:38:55Z</time>
      </trkpt>
      <trkpt lat="37.497390" lon="-119.631980">
        <ele>1532.423</ele>
        <time>2018-12-28T06:39:15Z</time>
      </trkpt>
      <trkpt lat="37.497040" lon="-119.632270">
        <ele>1530.683</ele>
        <time>2018-12-28T06:39:35Z</time>
      </trkpt>
      <trkpt lat="37.496750" lon="-119.632500">
        <ele>1528.711</ele>
        <time>2018-12-28T06:39:55Z</time>
      </trkpt>
      <trkpt lat="37.496670" lon="-119.632550">
        <ele>1528.208</ele>
        <time>2018-12-28T06:40:15Z</time>
      </trkpt>
      <trkpt lat="37.496580" lon="-119.632590">
        <ele>1527.875</ele>
        <time>2018-12-28T06:40:35Z</time>
      </trkpt>
      <trkpt lat="37.496470" lon="-119.632630">
        <ele>1527.663</ele>
        <time>2018-12-28T06:40:55Z</time>
      </trkpt>
      <trkpt lat="37.496330" lon="-119.632650">
        <ele>1527.878</ele>
        <time>2018-12-28T06:41:15Z</time>
      </trkpt>
      <trkpt lat="37.495920" lon="-119.632670">
        <ele>1529.168</ele>
        <time>2018-12-28T06:41:35Z</time>
      </trkpt>
      <trkpt lat="37.495560" lon="-119.632680">
        <ele>1530.112</ele>
        <time>2018-12-28T06:41:55Z</time>
      </trkpt>
      <trkpt lat="37.495050" lon="-119.632700">
        <ele>1531.572</ele>
        <time>2018-12-28T06:42:15Z</time>
      </trkpt>
      <trkpt lat="37.494560" lon="-119.632710">
        <ele>1531.028</ele>
        <time>2018-12-28T06:42:35Z</time>
      </trkpt>
      <trkpt lat="37.494270" lon="-119.632690">
        <ele>1530.747</ele>
        <time>2018-12-28T06:42:55Z</time>
      </trkpt>
      <trkpt lat="37.493930" lon="-119.632660">
        <ele>1529.756</ele>
        <time>2018-12-28T06:43:15Z</time>
      </trkpt>
      <trkpt lat="37.493540" lon="-119.632560">
        <ele>1529.659</ele>
        <time>2018-12-28T06:43:35Z</time>
      </trkpt>
      <trkpt lat="37.492990" lon="-119.632400">
        <ele>1522.414</ele>
        <time>2018-12-28T06:43:55Z</time>
      </trkpt>
      <trkpt lat="37.492550" lon="-119.632260">
        <ele>1521.608</ele>
        <time>2018-12-28T06:44:15Z</time>
      </trkpt>
      <trkpt lat="37.492130" lon="-119.632130">
        <ele>1520.998</ele>
        <time>2018-12-28T06:44:35Z</time>
      </trkpt>
      <trkpt lat="37.491810" lon="-119.632020">
        <ele>1521.086</ele>
        <time>2018-12-28T06:44:55Z</time>
      </trkpt>
      <trkpt lat="37.491280" lon="-119.631840">
        <ele>1519.931</ele>
        <time>2018-12-28T06:45:15Z</time>
      </trkpt>
      <trkpt lat="37.491070" lon="-119.631760">
        <ele>1519.871</ele>
        <time>2018-12-28T06:45:35Z</time>
      </trkpt>
      <trkpt lat="37.490960" lon="-119.631720">
        <ele>1519.475</ele>
        <time>2018-12-28T06:45:55Z</time>
      </trkpt>
      <trkpt lat="37.490860" lon="-119.631660">
        <ele>1519.745</ele>
        <time>2018-12-28T06:46:15Z</time>
      </trkpt>
      <trkpt lat="37.490780" lon="-119.631580">
        <ele>1520.491</ele>
        <time>2018-12-28T06:46:35Z</time>
      </trkpt>
      <trkpt lat="37.490640" lon="-119.631420">
        <ele>1521.730</ele>
        <time>2018-12-28T06:46:55Z</time>
      </trkpt>
      <trkpt lat="37.490460" lon="-119.631250">
        <ele>1521.438</ele>
        <time>2018-12-28T06:47:15Z</time>
      </trkpt>
      <trkpt lat="37.490360" lon="-119.631160">
        <ele>1521.670</ele>
        <time>2018-12-28T06:47:35Z</time>
      </trkpt>
      <trkpt lat="37.490240" lon="-119.631090">
        <ele>1521.017</ele>
        <time>2018-12-28T06:47:55Z</time>
      </trkpt>
      <trkpt lat="37.490150" lon="-119.631050">
        <ele>1520.108</ele>
        <time>2018-12-28T06:48:15Z</time>
      </trkpt>
      <trkpt lat="37.490100" lon="-119.631030">
        <ele>1519.556</ele>
        <time>2018-12-28T06:48:35Z</time>
      </trkpt>
      <trkpt lat="37.490000" lon="-119.631020">
        <ele>1517.714</ele>
        <time>2018-12-28T06:48:55Z</time>
      </trkpt>
      <trkpt lat="37.489900" lon="-119.631030">
        <ele>1515.689</ele>
        <time>2018-12-28T06:49:15Z</time>
      </trkpt>
      <trkpt lat="37.489810" lon="-119.631060">
        <ele>1514.699</ele>
        <time>2018-12-28T06:49:35Z</time>
      </trkpt>
      <trkpt lat="37.489720" lon="-119.631090">
        <ele>1514.583</ele>
        <time>2018-12-28T06:49:55Z</time>
      </trkpt>
      <trkpt lat="37.489640" lon="-119.631130">
        <ele>1514.543</ele>
        <time>2018-12-28T06:50:15Z</time>
      </trkpt>
      <trkpt lat="37.489450" lon="-119.631290">
        <ele>1515.899</ele>
        <time>2018-12-28T06:50:35Z</time>
      </trkpt>
      <trkpt lat="37.489290" lon="-119.631500">
        <ele>1516.948</ele>
        <time>2018-12-28T06:50:55Z</time>
      </trkpt>
      <trkpt lat="37.489100" lon="-119.631840">
        <ele>1518.421</ele>
        <time>2018-12-28T06:51:15Z</time>
      </trkpt>
      <trkpt lat="37.488920" lon="-119.632190">
        <ele>1518.241</ele>
        <time>2018-12-28T06:51:35Z</time>
      </trkpt>
      <trkpt lat="37.488810" lon="-119.632390">
        <ele>1518.605</ele>
        <time>2018-12-28T06:51:55Z</time>
      </trkpt>
      <trkpt lat="37.488690" lon="-119.632630">
        <ele>1518.508</ele>
        <time>2018-12-28T06:52:15Z</time>
      </trkpt>
      <trkpt lat="37.488510" lon="-119.632900">
        <ele>1517.855</ele>
        <time>2018-12-28T06:52:35Z</time>
      </trkpt>
      <trkpt lat="37.488440" lon="-119.632990">
        <ele>1517.473</ele>
        <time>2018-12-28T06:52:55Z</time>
      </trkpt>
      <trkpt lat="37.488350" lon="-119.633060">
        <ele>1517.238</ele>
        <time>2018-12-28T06:53:15Z</time>
      </trkpt>
      <trkpt lat="37.488230" lon="-119.633120">
        <ele>1517.418</ele>
        <time>2018-12-28T06:53:35Z</time>
      </trkpt>
      <trkpt lat="37.488100" lon="-119.633160">
        <ele>1517.722</ele>
        <time>2018-12-28T06:53:55Z</time>
      </trkpt>
      <trkpt lat="37.487960" lon="-119.633210">
        <ele>1517.952</ele>
        <time>2018-12-28T06:54:15Z</time>
      </trkpt>
      <trkpt lat="37.487830" lon="-119.633220">
        <ele>1518.698</ele>
        <time>2018-12-28T06:54:35Z</time>
      </trkpt>
      <trkpt lat="37.487720" lon="-119.633200">
        <ele>1519.567</ele>
        <time>2018-12-28T06:54:55Z</time>
      </trkpt>
      <trkpt lat="37.487600" lon="-119.633190">
        <ele>1520.266</ele>
        <time>2018-12-28T06:55:15Z</time>
      </trkpt>
      <trkpt lat="37.487470" lon="-119.633150">
        <ele>1520.829</ele>
        <time>2018-12-28T06:55:35Z</time>
      </trkpt>
      <trkpt lat="37.487270" lon="-119.633070">
        <ele>1521.321</ele>
        <time>2018-12-28T06:55:55Z</time>
      </trkpt>
      <trkpt lat="37.487030" lon="-119.632900">
        <ele>1521.208</ele>
        <time>2018-12-28T06:56:15Z</time>
      </trkpt>
      <trkpt lat="37.486680" lon="-119.632650">
        <ele>1519.419</ele>
        <time>2018-12-28T06:56:35Z</time>
      </trkpt>
      <trkpt lat="37.486340" lon="-119.632400">
        <ele>1518.527</ele>
        <time>2018-12-28T06:56:55Z</time>
      </trkpt>
      <trkpt lat="37.486030" lon="-119.632150">
        <ele>1518.612</ele>
        <time>2018-12-28T06:57:15Z</time>
      </trkpt>
      <trkpt lat="37.485810" lon="-119.632000">
        <ele>1519.342</ele>
        <time>2018-12-28T06:57:35Z</time>
      </trkpt>
      <trkpt lat="37.485700" lon="-119.631950">
        <ele>1519.386</ele>
        <time>2018-12-28T06:57:55Z</time>
      </trkpt>
      <trkpt lat="37.485610" lon="-119.631920">
        <ele>1519.366</ele>
        <time>2018-12-28T06:58:15Z</time>
      </trkpt>
      <trkpt lat="37.485440" lon="-119.631900">
        <ele>1518.722</ele>
        <time>2018-12-28T06:58:35Z</time>
      </trkpt>
      <trkpt lat="37.485250" lon="-119.631910">
        <ele>1518.951</ele>
        <time>2018-12-28T06:58:55Z</time>
      </trkpt>
      <trkpt lat="37.485060" lon="-119.631970">
        <ele>1518.736</ele>
        <time>2018-12-28T06:59:15Z</time>
      </trkpt>
      <trkpt lat="37.484920" lon="-119.632040">
        <ele>1518.517</ele>
        <time>2018-12-28T06:59:35Z</time>
      </trkpt>
      <trkpt lat="37.484840" lon="-119.632110">
        <ele>1518.018</ele>
        <time>2018-12-28T06:59:55Z</time>
      </trkpt>
      <trkpt lat="37.484710" lon="-119.632220">
        <ele>1518.108</ele>
        <time>2018-12-28T07:00:15Z</time>
      </trkpt>
      <trkpt lat="37.484540" lon="-119.632400">
        <ele>1517.736</ele>
        <time>2018-12-28T07:00:35Z</time>
      </trkpt>
      <trkpt lat="37.484310" lon="-119.632680">
        <ele>1516.464</ele>
        <time>2018-12-28T07:00:55Z</time>
      </trkpt>
      <trkpt lat="37.484200" lon="-119.632800">
        <ele>1515.529</ele>
        <time>2018-12-28T07:01:15Z</time>
      </trkpt>
      <trkpt lat="37.483980" lon="-119.632970">
        <ele>1515.789</ele>
        <time>2018-12-28T07:01:35Z</time>
      </trkpt>
      <trkpt lat="37.483780" lon="-119.633130">
        <ele>1515.763</ele>
        <time>2018-12-28T07:01:55Z</time>
      </trkpt>
      <trkpt lat="37.483520" lon="-119.633300">
        <ele>1516.153</ele>
        <time>2018-12-28T07:02:15Z</time>
      </trkpt>
      <trkpt lat="37.482650" lon="-119.633800">
        <ele>1517.079</ele>
        <time>2018-12-28T07:02:35Z</time>
      </trkpt>
      <trkpt lat="37.482270" lon="-119.634130">
        <ele>1518.568</ele>
        <time>2018-12-28T07:02:55Z</time>
      </trkpt>
      <trkpt lat="37.481930" lon="-119.634470">
        <ele>1518.033</ele>
        <time>2018-12-28T07:03:15Z</time>
      </trkpt>
      <trkpt lat="37.481000" lon="-119.635530">
        <ele>1517.023</ele>
        <time>2018-12-28T07:03:35Z</time>
      </trkpt>
      <trkpt lat="37.480800" lon="-119.635750">
        <ele>1516.915</ele>
        <time>2018-12-28T07:03:55Z</time>
      </trkpt>
      <trkpt lat="37.480640" lon="-119.635940">
        <ele>1516.808</ele>
        <time>2018-12-28T07:04:15Z</time>
      </trkpt>
      <trkpt lat="37.480330" lon="-119.636270">
        <ele>1516.726</ele>
        <time>2018-12-28T07:04:35Z</time>
      </trkpt>
      <trkpt lat="37.480170" lon="-119.636450">
        <ele>1516.384</ele>
        <time>2018-12-28T07:04:55Z</time>
      </trkpt>
      <trkpt lat="37.479770" lon="-119.636870">
        <ele>1514.349</ele>
        <time>2018-12-28T07:05:15Z</time>
      </trkpt>
      <trkpt lat="37.479690" lon="-119.636970">
        <ele>1513.829</ele>
        <time>2018-12-28T07:05:35Z</time>
      </trkpt>
      <trkpt lat="37.479660" lon="-119.637010">
        <ele>1513.643</ele>
        <time>2018-12-28T07:05:55Z</time>
      </trkpt>
      <trkpt lat="37.479580" lon="-119.637100">
        <ele>1513.483</ele>
        <time>2018-12-28T07:06:15Z</time>
      </trkpt>
      <trkpt lat="37.479330" lon="-119.637370">
        <ele>1514.749</ele>
        <time>2018-12-28T07:06:35Z</time>
      </trkpt>
      <trkpt lat="37.478920" lon="-119.637850">
        <ele>1517.668</ele>
        <time>2018-12-28T07:06:55Z</time>
      </trkpt>
      <trkpt lat="37.478740" lon="-119.638010">
        <ele>1519.293</ele>
        <time>2018-12-28T07:07:15Z</time>
      </trkpt>
      <trkpt lat="37.478590" lon="-119.638100">
        <ele>1520.565</ele>
        <time>2018-12-28T07:07:35Z</time>
      </trkpt>
      <trkpt lat="37.478490" lon="-119.638150">
        <ele>1521.321</ele>
        <time>2018-12-28T07:07:55Z</time>
      </trkpt>
      <trkpt lat="37.478340" lon="-119.638190">
        <ele>1522.208</ele>
        <time>2018-12-28T07:08:15Z</time>
      </trkpt>
      <trkpt lat="37.478190" lon="-119.638210">
        <ele>1523.092</ele>
        <time>2018-12-28T07:08:35Z</time>
      </trkpt>
      <trkpt lat="37.478040" lon="-119.638200">
        <ele>1523.620</ele>
        <time>2018-12-28T07:08:55Z</time>
      </trkpt>
      <trkpt lat="37.477870" lon="-119.638160">
        <ele>1524.135</ele>
        <time>2018-12-28T07:09:15Z</time>
      </trkpt>
      <trkpt lat="37.477740" lon="-119.638100">
        <ele>1524.375</ele>
        <time>2018-12-28T07:09:35Z</time>
      </trkpt>
      <trkpt lat="37.477610" lon="-119.638030">
        <ele>1524.559</ele>
        <time>2018-12-28T07:09:55Z</time>
      </trkpt>
      <trkpt lat="37.477450" lon="-119.637920">
        <ele>1524.699</ele>
        <time>2018-12-28T07:10:15Z</time>
      </trkpt>
      <trkpt lat="37.477270" lon="-119.637790">
        <ele>1527.125</ele>
        <time>2018-12-28T07:10:35Z</time>
      </trkpt>
      <trkpt lat="37.477140" lon="-119.637710">
        <ele>1529.144</ele>
        <time>2018-12-28T07:10:55Z</time>
      </trkpt>
      <trkpt lat="37.477030" lon="-119.637650">
        <ele>1530.287</ele>
        <time>2018-12-28T07:11:15Z</time>
      </trkpt>
      <trkpt lat="37.476900" lon="-119.637590">
        <ele>1531.642</ele>
        <time>2018-12-28T07:11:35Z</time>
      </trkpt>
      <trkpt lat="37.476720" lon="-119.637540">
        <ele>1533.526</ele>
        <time>2018-12-28T07:11:55Z</time>
      </trkpt>
      <trkpt lat="37.476610" lon="-119.637530">
        <ele>1534.508</ele>
        <time>2018-12-28T07:12:15Z</time>
      </trkpt>
      <trkpt lat="37.476500" lon="-119.637530">
        <ele>1535.681</ele>
        <time>2018-12-28T07:12:35Z</time>
      </trkpt>
      <trkpt lat="37.476410" lon="-119.637530">
        <ele>1536.439</ele>
        <time>2018-12-28T07:12:55Z</time>
      </trkpt>
      <trkpt lat="37.476330" lon="-119.637540">
        <ele>1537.274</ele>
        <time>2018-12-28T07:13:15Z</time>
      </trkpt>
      <trkpt lat="37.476210" lon="-119.637580">
        <ele>1538.514</ele>
        <time>2018-12-28T07:13:35Z</time>
      </trkpt>
      <trkpt lat="37.476110" lon="-119.637620">
        <ele>1539.748</ele>
        <time>2018-12-28T07:13:55Z</time>
      </trkpt>
      <trkpt lat="37.476020" lon="-119.637680">
        <ele>1541.428</ele>
        <time>2018-12-28T07:14:15Z</time>
      </trkpt>
      <trkpt lat="37.475950" lon="-119.637740">
        <ele>1542.794</ele>
        <time>2018-12-28T07:14:35Z</time>
      </trkpt>
      <trkpt lat="37.475860" lon="-119.637810">
        <ele>1543.473</ele>
        <time>2018-12-28T07:14:55Z</time>
      </trkpt>
      <trkpt lat="37.475780" lon="-119.637920">
        <ele>1544.557</ele>
        <time>2018-12-28T07:15:15Z</time>
      </trkpt>
      <trkpt lat="37.475680" lon="-119.638070">
        <ele>1545.900</ele>
        <time>2018-12-28T07:15:35Z</time>
      </trkpt>
      <trkpt lat="37.475590" lon="-119.638200">
        <ele>1546.620</ele>
        <time>2018-12-28T07:15:55Z</time>
      </trkpt>
      <trkpt lat="37.475480" lon="-119.638370">
        <ele>1546.908</ele>
        <time>2018-12-28T07:16:15Z</time>
      </trkpt>
      <trkpt lat="37.475400" lon="-119.638470">
        <ele>1547.118</ele>
        <time>2018-12-28T07:16:35Z</time>
      </trkpt>
      <trkpt lat="37.475310" lon="-119.638560">
        <ele>1547.166</ele>
        <time>2018-12-28T07:16:55Z</time>
      </trkpt>
      <trkpt lat="37.475230" lon="-119.638630">
        <ele>1547.021</ele>
        <time>2018-12-28T07:17:15Z</time>
      </trkpt>
      <trkpt lat="37.475140" lon="-119.638680">
        <ele>1546.811</ele>
        <time>2018-12-28T07:17:35Z</time>
      </trkpt>
      <trkpt lat="37.475020" lon="-119.638740">
        <ele>1547.315</ele>
        <time>2018-12-28T07:17:55Z</time>
      </trkpt>
      <trkpt lat="37.474920" lon="-119.638760">
        <ele>1547.425</ele>
        <time>2018-12-28T07:18:15Z</time>
      </trkpt>
      <trkpt lat="37.474840" lon="-119.638770">
        <ele>1547.621</ele>
        <time>2018-12-28T07:18:35Z</time>
      </trkpt>
      <trkpt lat="37.474770" lon="-119.638770">
        <ele>1547.970</ele>
        <time>2018-12-28T07:18:55Z</time>
      </trkpt>
      <trkpt lat="37.474700" lon="-119.638770">
        <ele>1548.344</ele>
        <time>2018-12-28T07:19:15Z</time>
      </trkpt>
      <trkpt lat="37.474640" lon="-119.638760">
        <ele>1548.505</ele>
        <time>2018-12-28T07:19:35Z</time>
      </trkpt>
      <trkpt lat="37.474530" lon="-119.638720">
        <ele>1549.415</ele>
        <time>2018-12-28T07:19:55Z</time>
      </trkpt>
      <trkpt lat="37.474440" lon="-119.638680">
        <ele>1550.708</ele>
        <time>2018-12-28T07:20:15Z</time>
      </trkpt>
      <trkpt lat="37.474360" lon="-119.638650">
        <ele>1551.817</ele>
        <time>2018-12-28T07:20:35Z</time>
      </trkpt>
      <trkpt lat="37.474140" lon="-119.638550">
        <ele>1554.065</ele>
        <time>2018-12-28T07:20:55Z</time>
      </trkpt>
      <trkpt lat="37.473990" lon="-119.638480">
        <ele>1554.680</ele>
        <time>2018-12-28T07:21:15Z</time>
      </trkpt>
      <trkpt lat="37.473900" lon="-119.638460">
        <ele>1555.020</ele>
        <time>2018-12-28T07:21:35Z</time>
      </trkpt>
      <trkpt lat="37.473830" lon="-119.638440">
        <ele>1555.394</ele>
        <time>2018-12-28T07:21:55Z</time>
      </trkpt>
      <trkpt lat="37.473760" lon="-119.638430">
        <ele>1555.784</ele>
        <time>2018-12-28T07:22:15Z</time>
      </trkpt>
      <trkpt lat="37.473690" lon="-119.638420">
        <ele>1556.390</ele>
        <time>2018-12-28T07:22:35Z</time>
      </trkpt>
      <trkpt lat="37.473590" lon="-119.638410">
        <ele>1557.199</ele>
        <time>2018-12-28T07:22:55Z</time>
      </trkpt>
      <trkpt lat="37.473510" lon="-119.638410">
        <ele>1557.886</ele>
        <time>2018-12-28T07:23:15Z</time>
      </trkpt>
      <trkpt lat="37.473420" lon="-119.638410">
        <ele>1558.360</ele>
        <time>2018-12-28T07:23:35Z</time>
      </trkpt>
      <trkpt lat="37.473330" lon="-119.638420">
        <ele>1558.526</ele>
        <time>2018-12-28T07:23:55Z</time>
      </trkpt>
      <trkpt lat="37.473260" lon="-119.638440">
        <ele>1558.808</ele>
        <time>2018-12-28T07:24:15Z</time>
      </trkpt>
      <trkpt lat="37.473210" lon="-119.638460">
        <ele>1558.941</ele>
        <time>2018-12-28T07:24:35Z</time>
      </trkpt>
      <trkpt lat="37.473160" lon="-119.638490">
        <ele>1559.079</ele>
        <time>2018-12-28T07:24:55Z</time>
      </trkpt>
      <trkpt lat="37.473110" lon="-119.638520">
        <ele>1559.154</ele>
        <time>2018-12-28T07:25:15Z</time>
      </trkpt>
      <trkpt lat="37.473050" lon="-119.638560">
        <ele>1559.164</ele>
        <time>2018-12-28T07:25:35Z</time>
      </trkpt>
      <trkpt lat="37.473010" lon="-119.638610">
        <ele>1559.228</ele>
        <time>2018-12-28T07:25:55Z</time>
      </trkpt>
      <trkpt lat="37.472970" lon="-119.638660">
        <ele>1559.348</ele>
        <time>2018-12-28T07:26:15Z</time>
      </trkpt>
      <trkpt lat="37.472930" lon="-119.638720">
        <ele>1559.384</ele>
        <time>2018-12-28T07:26:35Z</time>
      </trkpt>
      <trkpt lat="37.472880" lon="-119.638820">
        <ele>1558.873</ele>
        <time>2018-12-28T07:26:55Z</time>
      </trkpt>
      <trkpt lat="37.472820" lon="-119.638970">
        <ele>1557.394</ele>
        <time>2018-12-28T07:27:15Z</time>
      </trkpt>
      <trkpt lat="37.472790" lon="-119.639060">
        <ele>1556.657</ele>
        <time>2018-12-28T07:27:35Z</time>
      </trkpt>
      <trkpt lat="37.472770" lon="-119.639160">
        <ele>1556.622</ele>
        <time>2018-12-28T07:27:55Z</time>
      </trkpt>
      <trkpt lat="37.472740" lon="-119.639340">
        <ele>1556.808</ele>
        <time>2018-12-28T07:28:15Z</time>
      </trkpt>
      <trkpt lat="37.472700" lon="-119.639500">
        <ele>1557.172</ele>
        <time>2018-12-28T07:28:35Z</time>
      </trkpt>
      <trkpt lat="37.472660" lon="-119.639640">
        <ele>1557.320</ele>
        <time>2018-12-28T07:28:55Z</time>
      </trkpt>
      <trkpt lat="37.472550" lon="-119.639910">
        <ele>1555.675</ele>
        <time>2018-12-28T07:29:15Z</time>
      </trkpt>
      <trkpt lat="37.472420" lon="-119.640170">
        <ele>1550.725</ele>
        <time>2018-12-28T07:29:35Z</time>
      </trkpt>
      <trkpt lat="37.472240" lon="-119.640640">
        <ele>1546.459</ele>
        <time>2018-12-28T07:29:55Z</time>
      </trkpt>
      <trkpt lat="37.472190" lon="-119.640810">
        <ele>1545.489</ele>
        <time>2018-12-28T07:30:15Z</time>
      </trkpt>
      <trkpt lat="37.472160" lon="-119.640970">
        <ele>1544.765</ele>
        <time>2018-12-28T07:30:35Z</time>
      </trkpt>
      <trkpt lat="37.472150" lon="-119.641080">
        <ele>1544.254</ele>
        <time>2018-12-28T07:30:55Z</time>
      </trkpt>
      <trkpt lat="37.472140" lon="-119.641180">
        <ele>1543.735</ele>
        <time>2018-12-28T07:31:15Z</time>
      </trkpt>
      <trkpt lat="37.472150" lon="-119.641280">
        <ele>1543.986</ele>
        <time>2018-12-28T07:31:35Z</time>
      </trkpt>
      <trkpt lat="37.472160" lon="-119.641450">
        <ele>1543.814</ele>
        <time>2018-12-28T07:31:55Z</time>
      </trkpt>
      <trkpt lat="37.472150" lon="-119.641610">
        <ele>1544.208</ele>
        <time>2018-12-28T07:32:15Z</time>
      </trkpt>
      <trkpt lat="37.472130" lon="-119.641690">
        <ele>1544.576</ele>
        <time>2018-12-28T07:32:35Z</time>
      </trkpt>
      <trkpt lat="37.472110" lon="-119.641770">
        <ele>1544.744</ele>
        <time>2018-12-28T07:32:55Z</time>
      </trkpt>
      <trkpt lat="37.472010" lon="-119.641970">
        <ele>1544.739</ele>
        <time>2018-12-28T07:33:15Z</time>
      </trkpt>
      <trkpt lat="37.471940" lon="-119.642070">
        <ele>1544.179</ele>
        <time>2018-12-28T07:33:35Z</time>
      </trkpt>
      <trkpt lat="37.471900" lon="-119.642120">
        <ele>1543.653</ele>
        <time>2018-12-28T07:33:55Z</time>
      </trkpt>
      <trkpt lat="37.471810" lon="-119.642170">
        <ele>1542.063</ele>
        <time>2018-12-28T07:34:15Z</time>
      </trkpt>
      <trkpt lat="37.471740" lon="-119.642200">
        <ele>1542.149</ele>
        <time>2018-12-28T07:34:35Z</time>
      </trkpt>
      <trkpt lat="37.471660" lon="-119.642220">
        <ele>1542.038</ele>
        <time>2018-12-28T07:34:55Z</time>
      </trkpt>
      <trkpt lat="37.471590" lon="-119.642220">
        <ele>1541.687</ele>
        <time>2018-12-28T07:35:15Z</time>
      </trkpt>
      <trkpt lat="37.471510" lon="-119.642220">
        <ele>1541.042</ele>
        <time>2018-12-28T07:35:35Z</time>
      </trkpt>
      <trkpt lat="37.471410" lon="-119.642220">
        <ele>1539.726</ele>
        <time>2018-12-28T07:35:55Z</time>
      </trkpt>
      <trkpt lat="37.471320" lon="-119.642220">
        <ele>1538.608</ele>
        <time>2018-12-28T07:36:15Z</time>
      </trkpt>
      <trkpt lat="37.471240" lon="-119.642240">
        <ele>1537.821</ele>
        <time>2018-12-28T07:36:35Z</time>
      </trkpt>
      <trkpt lat="37.471180" lon="-119.642260">
        <ele>1536.649</ele>
        <time>2018-12-28T07:36:55Z</time>
      </trkpt>
      <trkpt lat="37.471100" lon="-119.642290">
        <ele>1535.134</ele>
        <time>2018-12-28T07:37:15Z</time>
      </trkpt>
      <trkpt lat="37.471020" lon="-119.642340">
        <ele>1534.014</ele>
        <time>2018-12-28T07:37:35Z</time>
      </trkpt>
      <trkpt lat="37.470960" lon="-119.642370">
        <ele>1533.198</ele>
        <time>2018-12-28T07:37:55Z</time>
      </trkpt>
      <trkpt lat="37.470900" lon="-119.642420">
        <ele>1532.428</ele>
        <time>2018-12-28T07:38:15Z</time>
      </trkpt>
      <trkpt lat="37.470860" lon="-119.642460">
        <ele>1531.974</ele>
        <time>2018-12-28T07:38:35Z</time>
      </trkpt>
      <trkpt lat="37.470830" lon="-119.642490">
        <ele>1531.653</ele>
        <time>2018-12-28T07:38:55Z</time>
      </trkpt>
      <trkpt lat="37.470790" lon="-119.642540">
        <ele>1531.229</ele>
        <time>2018-12-28T07:39:15Z</time>
      </trkpt>
      <trkpt lat="37.470750" lon="-119.642590">
        <ele>1530.700</ele>
        <time>2018-12-28T07:39:35Z</time>
      </trkpt>
      <trkpt lat="37.470720" lon="-119.642640">
        <ele>1530.520</ele>
        <time>2018-12-28T07:39:55Z</time>
      </trkpt>
      <trkpt lat="37.470690" lon="-119.642700">
        <ele>1530.108</ele>
        <time>2018-12-28T07:40:15Z</time>
      </trkpt>
      <trkpt lat="37.470660" lon="-119.642780">
        <ele>1529.975</ele>
        <time>2018-12-28T07:40:35Z</time>
      </trkpt>
      <trkpt lat="37.470620" lon="-119.642900">
        <ele>1529.473</ele>
        <time>2018-12-28T07:40:55Z</time>
      </trkpt>
      <trkpt lat="37.470600" lon="-119.642990">
        <ele>1528.968</ele>
        <time>2018-12-28T07:41:15Z</time>
      </trkpt>
      <trkpt lat="37.470590" lon="-119.643070">
        <ele>1528.748</ele>
        <time>2018-12-28T07:41:35Z</time>
      </trkpt>
      <trkpt lat="37.470590" lon="-119.643170">
        <ele>1528.952</ele>
        <time>2018-12-28T07:41:55Z</time>
      </trkpt>
      <trkpt lat="37.470590" lon="-119.643300">
        <ele>1528.632</ele>
        <time>2018-12-28T07:42:15Z</time>
      </trkpt>
      <trkpt lat="37.470590" lon="-119.643420">
        <ele>1528.218</ele>
        <time>2018-12-28T07:42:35Z</time>
      </trkpt>
      <trkpt lat="37.470600" lon="-119.643570">
        <ele>1528.247</ele>
        <time>2018-12-28T07:42:55Z</time>
      </trkpt>
      <trkpt lat="37.470610" lon="-119.643720">
        <ele>1528.125</ele>
        <time>2018-12-28T07:43:15Z</time>
      </trkpt>
      <trkpt lat="37.470600" lon="-119.643840">
        <ele>1526.126</ele>
        <time>2018-12-28T07:43:35Z</time>
      </trkpt>
      <trkpt lat="37.470580" lon="-119.643950">
        <ele>1523.708</ele>
        <time>2018-12-28T07:43:55Z</time>
      </trkpt>
      <trkpt lat="37.470540" lon="-119.644060">
        <ele>1522.008</ele>
        <time>2018-12-28T07:44:15Z</time>
      </trkpt>
      <trkpt lat="37.470480" lon="-119.644190">
        <ele>1522.625</ele>
        <time>2018-12-28T07:44:35Z</time>
      </trkpt>
      <trkpt lat="37.470370" lon="-119.644330">
        <ele>1521.893</ele>
        <time>2018-12-28T07:44:55Z</time>
      </trkpt>
      <trkpt lat="37.470270" lon="-119.644410">
        <ele>1521.988</ele>
        <time>2018-12-28T07:45:15Z</time>
      </trkpt>
      <trkpt lat="37.470180" lon="-119.644430">
        <ele>1521.328</ele>
        <time>2018-12-28T07:45:35Z</time>
      </trkpt>
      <trkpt lat="37.470090" lon="-119.644440">
        <ele>1520.642</ele>
        <time>2018-12-28T07:45:55Z</time>
      </trkpt>
      <trkpt lat="37.469970" lon="-119.644400">
        <ele>1518.722</ele>
        <time>2018-12-28T07:46:15Z</time>
      </trkpt>
      <trkpt lat="37.469810" lon="-119.644330">
        <ele>1515.288</ele>
        <time>2018-12-28T07:46:35Z</time>
      </trkpt>
      <trkpt lat="37.469680" lon="-119.644270">
        <ele>1511.587</ele>
        <time>2018-12-28T07:46:55Z</time>
      </trkpt>
      <trkpt lat="37.469590" lon="-119.644240">
        <ele>1509.447</ele>
        <time>2018-12-28T07:47:15Z</time>
      </trkpt>
      <trkpt lat="37.469580" lon="-119.644230">
        <ele>1509.029</ele>
        <time>2018-12-28T07:47:35Z</time>
      </trkpt>
      <trkpt lat="37.469470" lon="-119.644220">
        <ele>1508.121</ele>
        <time>2018-12-28T07:47:55Z</time>
      </trkpt>
      <trkpt lat="37.469350" lon="-119.644230">
        <ele>1507.608</ele>
        <time>2018-12-28T07:48:15Z</time>
      </trkpt>
      <trkpt lat="37.469240" lon="-119.644260">
        <ele>1507.497</ele>
        <time>2018-12-28T07:48:35Z</time>
      </trkpt>
      <trkpt lat="37.469140" lon="-119.644310">
        <ele>1507.465</ele>
        <time>2018-12-28T07:48:55Z</time>
      </trkpt>
      <trkpt lat="37.469020" lon="-119.644400">
        <ele>1508.150</ele>
        <time>2018-12-28T07:49:15Z</time>
      </trkpt>
      <trkpt lat="37.468890" lon="-119.644510">
        <ele>1508.880</ele>
        <time>2018-12-28T07:49:35Z</time>
      </trkpt>
      <trkpt lat="37.468640" lon="-119.644790">
        <ele>1510.124</ele>
        <time>2018-12-28T07:49:55Z</time>
      </trkpt>
      <trkpt lat="37.468550" lon="-119.644870">
        <ele>1509.874</ele>
        <time>2018-12-28T07:50:15Z</time>
      </trkpt>
      <trkpt lat="37.468460" lon="-119.644950">
        <ele>1509.610</ele>
        <time>2018-12-28T07:50:35Z</time>
      </trkpt>
      <trkpt lat="37.468360" lon="-119.645020">
        <ele>1508.759</ele>
        <time>2018-12-28T07:50:55Z</time>
      </trkpt>
      <trkpt lat="37.468210" lon="-119.645080">
        <ele>1506.331</ele>
        <time>2018-12-28T07:51:15Z</time>
      </trkpt>
      <trkpt lat="37.468130" lon="-119.645100">
        <ele>1505.861</ele>
        <time>2018-12-28T07:51:35Z</time>
      </trkpt>
      <trkpt lat="37.468050" lon="-119.645110">
        <ele>1505.407</ele>
        <time>2018-12-28T07:51:55Z</time>
      </trkpt>
      <trkpt lat="37.467980" lon="-119.645130">
        <ele>1505.408</ele>
        <time>2018-12-28T07:52:15Z</time>
      </trkpt>
      <trkpt lat="37.467860" lon="-119.645160">
        <ele>1505.226</ele>
        <time>2018-12-28T07:52:35Z</time>
      </trkpt>
      <trkpt lat="37.467720" lon="-119.645210">
        <ele>1505.014</ele>
        <time>2018-12-28T07:52:55Z</time>
      </trkpt>
      <trkpt lat="37.467530" lon="-119.645300">
        <ele>1503.119</ele>
        <time>2018-12-28T07:53:15Z</time>
      </trkpt>
      <trkpt lat="37.467320" lon="-119.645420">
        <ele>1499.579</ele>
        <time>2018-12-28T07:53:35Z</time>
      </trkpt>
      <trkpt lat="37.467220" lon="-119.645470">
        <ele>1501.113</ele>
        <time>2018-12-28T07:53:55Z</time>
      </trkpt>
      <trkpt lat="37.467130" lon="-119.645510">
        <ele>1501.453</ele>
        <time>2018-12-28T07:54:15Z</time>
      </trkpt>
      <trkpt lat="37.467030" lon="-119.645520">
        <ele>1500.719</ele>
        <time>2018-12-28T07:54:35Z</time>
      </trkpt>
      <trkpt lat="37.466940" lon="-119.645510">
        <ele>1499.918</ele>
        <time>2018-12-28T07:54:55Z</time>
      </trkpt>
      <trkpt lat="37.466780" lon="-119.645500">
        <ele>1498.884</ele>
        <time>2018-12-28T07:55:15Z</time>
      </trkpt>
      <trkpt lat="37.466590" lon="-119.645450">
        <ele>1496.707</ele>
        <time>2018-12-28T07:55:35Z</time>
      </trkpt>
      <trkpt lat="37.466350" lon="-119.645380">
        <ele>1495.317</ele>
        <time>2018-12-28T07:55:55Z</time>
      </trkpt>
      <trkpt lat="37.466230" lon="-119.645330">
        <ele>1494.408</ele>
        <time>2018-12-28T07:56:15Z</time>
      </trkpt>
      <trkpt lat="37.466130" lon="-119.645290">
        <ele>1494.221</ele>
        <time>2018-12-28T07:56:35Z</time>
      </trkpt>
      <trkpt lat="37.465850" lon="-119.645120">
        <ele>1493.759</ele>
        <time>2018-12-28T07:56:55Z</time>
      </trkpt>
      <trkpt lat="37.465650" lon="-119.645030">
        <ele>1493.744</ele>
        <time>2018-12-28T07:57:15Z</time>
      </trkpt>
      <trkpt lat="37.465380" lon="-119.644950">
        <ele>1492.784</ele>
        <time>2018-12-28T07:57:35Z</time>
      </trkpt>
      <trkpt lat="37.465260" lon="-119.644930">
        <ele>1492.178</ele>
        <time>2018-12-28T07:57:55Z</time>
      </trkpt>
      <trkpt lat="37.465140" lon="-119.644920">
        <ele>1491.838</ele>
        <time>2018-12-28T07:58:15Z</time>
      </trkpt>
      <trkpt lat="37.464930" lon="-119.644940">
        <ele>1491.454</ele>
        <time>2018-12-28T07:58:35Z</time>
      </trkpt>
      <trkpt lat="37.464740" lon="-119.644990">
        <ele>1490.093</ele>
        <time>2018-12-28T07:58:55Z</time>
      </trkpt>
      <trkpt lat="37.464580" lon="-119.645060">
        <ele>1487.996</ele>
        <time>2018-12-28T07:59:15Z</time>
      </trkpt>
      <trkpt lat="37.464500" lon="-119.645120">
        <ele>1487.331</ele>
        <time>2018-12-28T07:59:35Z</time>
      </trkpt>
      <trkpt lat="37.464390" lon="-119.645210">
        <ele>1487.724</ele>
        <time>2018-12-28T07:59:55Z</time>
      </trkpt>
      <trkpt lat="37.464250" lon="-119.645320">
        <ele>1487.808</ele>
        <time>2018-12-28T08:00:15Z</time>
      </trkpt>
      <trkpt lat="37.464190" lon="-119.645360">
        <ele>1487.342</ele>
        <time>2018-12-28T08:00:35Z</time>
      </trkpt>
      <trkpt lat="37.464120" lon="-119.645380">
        <ele>1486.350</ele>
        <time>2018-12-28T08:00:55Z</time>
      </trkpt>
      <trkpt lat="37.464060" lon="-119.645390">
        <ele>1485.315</ele>
        <time>2018-12-28T08:01:15Z</time>
      </trkpt>
      <trkpt lat="37.463950" lon="-119.645380">
        <ele>1484.775</ele>
        <time>2018-12-28T08:01:35Z</time>
      </trkpt>
      <trkpt lat="37.463900" lon="-119.645360">
        <ele>1484.649</ele>
        <time>2018-12-28T08:01:55Z</time>
      </trkpt>
      <trkpt lat="37.463850" lon="-119.645350">
        <ele>1484.629</ele>
        <time>2018-12-28T08:02:15Z</time>
      </trkpt>
      <trkpt lat="37.463820" lon="-119.645330">
        <ele>1484.425</ele>
        <time>2018-12-28T08:02:35Z</time>
      </trkpt>
      <trkpt lat="37.463770" lon="-119.645300">
        <ele>1484.214</ele>
        <time>2018-12-28T08:02:55Z</time>
      </trkpt>
      <trkpt lat="37.463690" lon="-119.645240">
        <ele>1484.793</ele>
        <time>2018-12-28T08:03:15Z</time>
      </trkpt>
      <trkpt lat="37.463620" lon="-119.645170">
        <ele>1484.865</ele>
        <time>2018-12-28T08:03:35Z</time>
      </trkpt>
      <trkpt lat="37.463570" lon="-119.645100">
        <ele>1484.421</ele>
        <time>2018-12-28T08:03:55Z</time>
      </trkpt>
      <trkpt lat="37.463540" lon="-119.645040">
        <ele>1483.908</ele>
        <time>2018-12-28T08:04:15Z</time>
      </trkpt>
      <trkpt lat="37.463500" lon="-119.644970">
        <ele>1483.532</ele>
        <time>2018-12-28T08:04:35Z</time>
      </trkpt>
      <trkpt lat="37.463480" lon="-119.644900">
        <ele>1482.830</ele>
        <time>2018-12-28T08:04:55Z</time>
      </trkpt>
      <trkpt lat="37.463420" lon="-119.644760">
        <ele>1481.955</ele>
        <time>2018-12-28T08:05:15Z</time>
      </trkpt>
      <trkpt lat="37.463380" lon="-119.644680">
        <ele>1481.325</ele>
        <time>2018-12-28T08:05:35Z</time>
      </trkpt>
      <trkpt lat="37.463320" lon="-119.644560">
        <ele>1480.479</ele>
        <time>2018-12-28T08:05:55Z</time>
      </trkpt>
      <trkpt lat="37.463260" lon="-119.644460">
        <ele>1479.729</ele>
        <time>2018-12-28T08:06:15Z</time>
      </trkpt>
      <trkpt lat="37.463200" lon="-119.644380">
        <ele>1479.225</ele>
        <time>2018-12-28T08:06:35Z</time>
      </trkpt>
      <trkpt lat="37.463130" lon="-119.644300">
        <ele>1478.924</ele>
        <time>2018-12-28T08:06:55Z</time>
      </trkpt>
      <trkpt lat="37.463070" lon="-119.644250">
        <ele>1478.968</ele>
        <time>2018-12-28T08:07:15Z</time>
      </trkpt>
      <trkpt lat="37.463000" lon="-119.644200">
        <ele>1479.142</ele>
        <time>2018-12-28T08:07:35Z</time>
      </trkpt>
      <trkpt lat="37.462920" lon="-119.644160">
        <ele>1479.526</ele>
        <time>2018-12-28T08:07:55Z</time>
      </trkpt>
      <trkpt lat="37.462840" lon="-119.644120">
        <ele>1479.508</ele>
        <time>2018-12-28T08:08:15Z</time>
      </trkpt>
      <trkpt lat="37.462750" lon="-119.644110">
        <ele>1480.349</ele>
        <time>2018-12-28T08:08:35Z</time>
      </trkpt>
      <trkpt lat="37.462520" lon="-119.644080">
        <ele>1481.467</ele>
        <time>2018-12-28T08:08:55Z</time>
      </trkpt>
      <trkpt lat="37.462200" lon="-119.644050">
        <ele>1482.082</ele>
        <time>2018-12-28T08:09:15Z</time>
      </trkpt>
      <trkpt lat="37.461970" lon="-119.644030">
        <ele>1481.992</ele>
        <time>2018-12-28T08:09:35Z</time>
      </trkpt>
      <trkpt lat="37.461850" lon="-119.644020">
        <ele>1481.896</ele>
        <time>2018-12-28T08:09:55Z</time>
      </trkpt>
      <trkpt lat="37.461700" lon="-119.644030">
        <ele>1481.876</ele>
        <time>2018-12-28T08:10:15Z</time>
      </trkpt>
      <trkpt lat="37.461570" lon="-119.644060">
        <ele>1482.132</ele>
        <time>2018-12-28T08:10:35Z</time>
      </trkpt>
      <trkpt lat="37.461400" lon="-119.644100">
        <ele>1482.271</ele>
        <time>2018-12-28T08:10:55Z</time>
      </trkpt>
      <trkpt lat="37.461250" lon="-119.644130">
        <ele>1482.252</ele>
        <time>2018-12-28T08:11:15Z</time>
      </trkpt>
      <trkpt lat="37.461130" lon="-119.644150">
        <ele>1482.053</ele>
        <time>2018-12-28T08:11:35Z</time>
      </trkpt>
      <trkpt lat="37.461060" lon="-119.644150">
        <ele>1481.608</ele>
        <time>2018-12-28T08:11:55Z</time>
      </trkpt>
      <trkpt lat="37.460680" lon="-119.644120">
        <ele>1476.408</ele>
        <time>2018-12-28T08:12:15Z</time>
      </trkpt>
      <trkpt lat="37.460060" lon="-119.644050">
        <ele>1471.148</ele>
        <time>2018-12-28T08:12:35Z</time>
      </trkpt>
      <trkpt lat="37.459810" lon="-119.644020">
        <ele>1470.486</ele>
        <time>2018-12-28T08:12:55Z</time>
      </trkpt>
      <trkpt lat="37.459680" lon="-119.644010">
        <ele>1469.961</ele>
        <time>2018-12-28T08:13:15Z</time>
      </trkpt>
      <trkpt lat="37.459580" lon="-119.644010">
        <ele>1469.821</ele>
        <time>2018-12-28T08:13:35Z</time>
      </trkpt>
      <trkpt lat="37.459490" lon="-119.644020">
        <ele>1469.665</ele>
        <time>2018-12-28T08:13:55Z</time>
      </trkpt>
      <trkpt lat="37.459340" lon="-119.644070">
        <ele>1470.115</ele>
        <time>2018-12-28T08:14:15Z</time>
      </trkpt>
      <trkpt lat="37.459250" lon="-119.644120">
        <ele>1470.781</ele>
        <time>2018-12-28T08:14:35Z</time>
      </trkpt>
      <trkpt lat="37.459180" lon="-119.644140">
        <ele>1470.890</ele>
        <time>2018-12-28T08:14:55Z</time>
      </trkpt>
      <trkpt lat="37.459100" lon="-119.644160">
        <ele>1470.863</ele>
        <time>2018-12-28T08:15:15Z</time>
      </trkpt>
      <trkpt lat="37.459040" lon="-119.644160">
        <ele>1470.544</ele>
        <time>2018-12-28T08:15:35Z</time>
      </trkpt>
      <trkpt lat="37.458970" lon="-119.644160">
        <ele>1470.018</ele>
        <time>2018-12-28T08:15:55Z</time>
      </trkpt>
      <trkpt lat="37.458870" lon="-119.644140">
        <ele>1469.008</ele>
        <time>2018-12-28T08:16:15Z</time>
      </trkpt>
      <trkpt lat="37.458770" lon="-119.644120">
        <ele>1467.949</ele>
        <time>2018-12-28T08:16:35Z</time>
      </trkpt>
      <trkpt lat="37.458620" lon="-119.644070">
        <ele>1465.087</ele>
        <time>2018-12-28T08:16:55Z</time>
      </trkpt>
      <trkpt lat="37.458460" lon="-119.644010">
        <ele>1461.622</ele>
        <time>2018-12-28T08:17:15Z</time>
      </trkpt>
      <trkpt lat="37.458210" lon="-119.643940">
        <ele>1459.312</ele>
        <time>2018-12-28T08:17:35Z</time>
      </trkpt>
      <trkpt lat="37.458060" lon="-119.643910">
        <ele>1458.846</ele>
        <time>2018-12-28T08:17:55Z</time>
      </trkpt>
      <trkpt lat="37.457930" lon="-119.643910">
        <ele>1458.936</ele>
        <time>2018-12-28T08:18:15Z</time>
      </trkpt>
      <trkpt lat="37.457800" lon="-119.643930">
        <ele>1458.932</ele>
        <time>2018-12-28T08:18:35Z</time>
      </trkpt>
      <trkpt lat="37.457660" lon="-119.643990">
        <ele>1459.471</ele>
        <time>2018-12-28T08:18:55Z</time>
      </trkpt>
      <trkpt lat="37.457530" lon="-119.644080">
        <ele>1460.134</ele>
        <time>2018-12-28T08:19:15Z</time>
      </trkpt>
      <trkpt lat="37.457410" lon="-119.644190">
        <ele>1461.155</ele>
        <time>2018-12-28T08:19:35Z</time>
      </trkpt>
      <trkpt lat="37.457370" lon="-119.644220">
        <ele>1461.310</ele>
        <time>2018-12-28T08:19:55Z</time>
      </trkpt>
      <trkpt lat="37.457300" lon="-119.644270">
        <ele>1461.408</ele>
        <time>2018-12-28T08:20:15Z</time>
      </trkpt>
      <trkpt lat="37.457210" lon="-119.644320">
        <ele>1461.446</ele>
        <time>2018-12-28T08:20:35Z</time>
      </trkpt>
      <trkpt lat="37.457090" lon="-119.644370">
        <ele>1461.184</ele>
        <time>2018-12-28T08:20:55Z</time>
      </trkpt>
      <trkpt lat="37.456970" lon="-119.644390">
        <ele>1460.099</ele>
        <time>2018-12-28T08:21:15Z</time>
      </trkpt>
      <trkpt lat="37.456850" lon="-119.644390">
        <ele>1458.639</ele>
        <time>2018-12-28T08:21:35Z</time>
      </trkpt>
      <trkpt lat="37.456760" lon="-119.644390">
        <ele>1457.933</ele>
        <time>2018-12-28T08:21:55Z</time>
      </trkpt>
      <trkpt lat="37.456620" lon="-119.644390">
        <ele>1457.453</ele>
        <time>2018-12-28T08:22:15Z</time>
      </trkpt>
      <trkpt lat="37.456370" lon="-119.644380">
        <ele>1455.959</ele>
        <time>2018-12-28T08:22:35Z</time>
      </trkpt>
      <trkpt lat="37.456240" lon="-119.644390">
        <ele>1455.238</ele>
        <time>2018-12-28T08:22:55Z</time>
      </trkpt>
      <trkpt lat="37.456120" lon="-119.644390">
        <ele>1452.824</ele>
        <time>2018-12-28T08:23:15Z</time>
      </trkpt>
      <trkpt lat="37.456040" lon="-119.644400">
        <ele>1451.404</ele>
        <time>2018-12-28T08:23:35Z</time>
      </trkpt>
      <trkpt lat="37.456000" lon="-119.644420">
        <ele>1450.914</ele>
        <time>2018-12-28T08:23:55Z</time>
      </trkpt>
      <trkpt lat="37.455950" lon="-119.644430">
        <ele>1450.108</ele>
        <time>2018-12-28T08:24:15Z</time>
      </trkpt>
      <trkpt lat="37.455890" lon="-119.644460">
        <ele>1449.825</ele>
        <time>2018-12-28T08:24:35Z</time>
      </trkpt>
      <trkpt lat="37.455830" lon="-119.644500">
        <ele>1449.753</ele>
        <time>2018-12-28T08:24:55Z</time>
      </trkpt>
      <trkpt lat="37.455770" lon="-119.644540">
        <ele>1449.758</ele>
        <time>2018-12-28T08:25:15Z</time>
      </trkpt>
      <trkpt lat="37.455700" lon="-119.644580">
        <ele>1449.518</ele>
        <time>2018-12-28T08:25:35Z</time>
      </trkpt>
      <trkpt lat="37.455640" lon="-119.644630">
        <ele>1450.192</ele>
        <time>2018-12-28T08:25:55Z</time>
      </trkpt>
      <trkpt lat="37.455560" lon="-119.644690">
        <ele>1450.592</ele>
        <time>2018-12-28T08:26:15Z</time>
      </trkpt>
      <trkpt lat="37.455520" lon="-119.644710">
        <ele>1450.348</ele>
        <time>2018-12-28T08:26:35Z</time>
      </trkpt>
      <trkpt lat="37.455480" lon="-119.644740">
        <ele>1450.227</ele>
        <time>2018-12-28T08:26:55Z</time>
      </trkpt>
      <trkpt lat="37.455430" lon="-119.644760">
        <ele>1449.769</ele>
        <time>2018-12-28T08:27:15Z</time>
      </trkpt>
      <trkpt lat="37.455380" lon="-119.644770">
        <ele>1449.604</ele>
        <time>2018-12-28T08:27:35Z</time>
      </trkpt>
      <trkpt lat="37.455340" lon="-119.644780">
        <ele>1449.724</ele>
        <time>2018-12-28T08:27:55Z</time>
      </trkpt>
      <trkpt lat="37.455300" lon="-119.644780">
        <ele>1449.808</ele>
        <time>2018-12-28T08:28:15Z</time>
      </trkpt>
      <trkpt lat="37.455260" lon="-119.644770">
        <ele>1449.749</ele>
        <time>2018-12-28T08:28:35Z</time>
      </trkpt>
      <trkpt lat="37.455210" lon="-119.644760">
        <ele>1449.617</ele>
        <time>2018-12-28T08:28:55Z</time>
      </trkpt>
      <trkpt lat="37.455140" lon="-119.644740">
        <ele>1449.392</ele>
        <time>2018-12-28T08:29:15Z</time>
      </trkpt>
      <trkpt lat="37.455100" lon="-119.644710">
        <ele>1449.352</ele>
        <time>2018-12-28T08:29:35Z</time>
      </trkpt>
      <trkpt lat="37.455060" lon="-119.644690">
        <ele>1449.346</ele>
        <time>2018-12-28T08:29:55Z</time>
      </trkpt>
      <trkpt lat="37.454980" lon="-119.644630">
        <ele>1449.146</ele>
        <time>2018-12-28T08:30:15Z</time>
      </trkpt>
      <trkpt lat="37.454860" lon="-119.644520">
        <ele>1448.362</ele>
        <time>2018-12-28T08:30:35Z</time>
      </trkpt>
      <trkpt lat="37.454800" lon="-119.644460">
        <ele>1447.961</ele>
        <time>2018-12-28T08:30:55Z</time>
      </trkpt>
      <trkpt lat="37.454720" lon="-119.644400">
        <ele>1447.626</ele>
        <time>2018-12-28T08:31:15Z</time>
      </trkpt>
      <trkpt lat="37.454650" lon="-119.644350">
        <ele>1447.447</ele>
        <time>2018-12-28T08:31:35Z</time>
      </trkpt>
      <trkpt lat="37.454580" lon="-119.644320">
        <ele>1447.511</ele>
        <time>2018-12-28T08:31:55Z</time>
      </trkpt>
      <trkpt lat="37.454520" lon="-119.644300">
        <ele>1447.608</ele>
        <time>2018-12-28T08:32:15Z</time>
      </trkpt>
      <trkpt lat="37.454450" lon="-119.644290">
        <ele>1447.955</ele>
        <time>2018-12-28T08:32:35Z</time>
      </trkpt>
      <trkpt lat="37.454330" lon="-119.644280">
        <ele>1448.633</ele>
        <time>2018-12-28T08:32:55Z</time>
      </trkpt>
      <trkpt lat="37.454240" lon="-119.644290">
        <ele>1448.888</ele>
        <time>2018-12-28T08:33:15Z</time>
      </trkpt>
      <trkpt lat="37.454110" lon="-119.644310">
        <ele>1448.828</ele>
        <time>2018-12-28T08:33:35Z</time>
      </trkpt>
      <trkpt lat="37.454040" lon="-119.644330">
        <ele>1448.922</ele>
        <time>2018-12-28T08:33:55Z</time>
      </trkpt>
      <trkpt lat="37.453990" lon="-119.644360">
        <ele>1449.052</ele>
        <time>2018-12-28T08:34:15Z</time>
      </trkpt>
      <trkpt lat="37.453830" lon="-119.644490">
        <ele>1449.318</ele>
        <time>2018-12-28T08:34:35Z</time>
      </trkpt>
      <trkpt lat="37.453730" lon="-119.644600">
        <ele>1450.077</ele>
        <time>2018-12-28T08:34:55Z</time>
      </trkpt>
      <trkpt lat="37.453620" lon="-119.644700">
        <ele>1450.675</ele>
        <time>2018-12-28T08:35:15Z</time>
      </trkpt>
      <trkpt lat="37.453500" lon="-119.644820">
        <ele>1450.428</ele>
        <time>2018-12-28T08:35:35Z</time>
      </trkpt>
      <trkpt lat="37.453360" lon="-119.644910">
        <ele>1450.620</ele>
        <time>2018-12-28T08:35:55Z</time>
      </trkpt>
      <trkpt lat="37.453260" lon="-119.644960">
        <ele>1450.508</ele>
        <time>2018-12-28T08:36:15Z</time>
      </trkpt>
      <trkpt lat="37.453160" lon="-119.645000">
        <ele>1450.250</ele>
        <time>2018-12-28T08:36:35Z</time>
      </trkpt>
      <trkpt lat="37.453060" lon="-119.645020">
        <ele>1450.078</ele>
        <time>2018-12-28T08:36:55Z</time>
      </trkpt>
      <trkpt lat="37.452950" lon="-119.645020">
        <ele>1449.483</ele>
        <time>2018-12-28T08:37:15Z</time>
      </trkpt>
      <trkpt lat="37.452860" lon="-119.645020">
        <ele>1449.683</ele>
        <time>2018-12-28T08:37:35Z</time>
      </trkpt>
      <trkpt lat="37.452770" lon="-119.645010">
        <ele>1450.127</ele>
        <time>2018-12-28T08:37:55Z</time>
      </trkpt>
      <trkpt lat="37.452660" lon="-119.644980">
        <ele>1450.237</ele>
        <time>2018-12-28T08:38:15Z</time>
      </trkpt>
      <trkpt lat="37.452540" lon="-119.644930">
        <ele>1450.153</ele>
        <time>2018-12-28T08:38:35Z</time>
      </trkpt>
      <trkpt lat="37.452440" lon="-119.644870">
        <ele>1449.382</ele>
        <time>2018-12-28T08:38:55Z</time>
      </trkpt>
      <trkpt lat="37.452360" lon="-119.644830">
        <ele>1449.061</ele>
        <time>2018-12-28T08:39:15Z</time>
      </trkpt>
      <trkpt lat="37.452310" lon="-119.644800">
        <ele>1448.821</ele>
        <time>2018-12-28T08:39:35Z</time>
      </trkpt>
      <trkpt lat="37.452260" lon="-119.644760">
        <ele>1448.413</ele>
        <time>2018-12-28T08:39:55Z</time>
      </trkpt>
      <trkpt lat="37.452200" lon="-119.644720">
        <ele>1448.208</ele>
        <time>2018-12-28T08:40:15Z</time>
      </trkpt>
      <trkpt lat="37.452140" lon="-119.644670">
        <ele>1447.739</ele>
        <time>2018-12-28T08:40:35Z</time>
      </trkpt>
      <trkpt lat="37.452060" lon="-119.644590">
        <ele>1446.717</ele>
        <time>2018-12-28T08:40:55Z</time>
      </trkpt>
      <trkpt lat="37.451980" lon="-119.644500">
        <ele>1445.722</ele>
        <time>2018-12-28T08:41:15Z</time>
      </trkpt>
      <trkpt lat="37.451910" lon="-119.644440">
        <ele>1445.372</ele>
        <time>2018-12-28T08:41:35Z</time>
      </trkpt>
      <trkpt lat="37.451810" lon="-119.644350">
        <ele>1444.716</ele>
        <time>2018-12-28T08:41:55Z</time>
      </trkpt>
      <trkpt lat="37.451730" lon="-119.644300">
        <ele>1444.436</ele>
        <time>2018-12-28T08:42:15Z</time>
      </trkpt>
      <trkpt lat="37.451620" lon="-119.644240">
        <ele>1444.112</ele>
        <time>2018-12-28T08:42:35Z</time>
      </trkpt>
      <trkpt lat="37.451530" lon="-119.644200">
        <ele>1443.921</ele>
        <time>2018-12-28T08:42:55Z</time>
      </trkpt>
      <trkpt lat="37.451410" lon="-119.644170">
        <ele>1443.886</ele>
        <time>2018-12-28T08:43:15Z</time>
      </trkpt>
      <trkpt lat="37.451340" lon="-119.644160">
        <ele>1443.860</ele>
        <time>2018-12-28T08:43:35Z</time>
      </trkpt>
      <trkpt lat="37.451260" lon="-119.644150">
        <ele>1444.026</ele>
        <time>2018-12-28T08:43:55Z</time>
      </trkpt>
      <trkpt lat="37.451150" lon="-119.644170">
        <ele>1444.008</ele>
        <time>2018-12-28T08:44:15Z</time>
      </trkpt>
      <trkpt lat="37.451080" lon="-119.644190">
        <ele>1444.141</ele>
        <time>2018-12-28T08:44:35Z</time>
      </trkpt>
      <trkpt lat="37.450970" lon="-119.644230">
        <ele>1444.559</ele>
        <time>2018-12-28T08:44:55Z</time>
      </trkpt>
      <trkpt lat="37.450890" lon="-119.644260">
        <ele>1444.334</ele>
        <time>2018-12-28T08:45:15Z</time>
      </trkpt>
      <trkpt lat="37.450820" lon="-119.644310">
        <ele>1444.514</ele>
        <time>2018-12-28T08:45:35Z</time>
      </trkpt>
      <trkpt lat="37.450730" lon="-119.644370">
        <ele>1444.848</ele>
        <time>2018-12-28T08:45:55Z</time>
      </trkpt>
      <trkpt lat="37.450660" lon="-119.644440">
        <ele>1445.198</ele>
        <time>2018-12-28T08:46:15Z</time>
      </trkpt>
      <trkpt lat="37.450570" lon="-119.644540">
        <ele>1445.314</ele>
        <time>2018-12-28T08:46:35Z</time>
      </trkpt>
      <trkpt lat="37.450490" lon="-119.644640">
        <ele>1445.863</ele>
        <time>2018-12-28T08:46:55Z</time>
      </trkpt>
      <trkpt lat="37.450420" lon="-119.644740">
        <ele>1446.384</ele>
        <time>2018-12-28T08:47:15Z</time>
      </trkpt>
      <trkpt lat="37.450310" lon="-119.644910">
        <ele>1447.607</ele>
        <time>2018-12-28T08:47:35Z</time>
      </trkpt>
      <trkpt lat="37.450260" lon="-119.644980">
        <ele>1448.017</ele>
        <time>2018-12-28T08:47:55Z</time>
      </trkpt>
      <trkpt lat="37.450220" lon="-119.645040">
        <ele>1448.408</ele>
        <time>2018-12-28T08:48:15Z</time>
      </trkpt>
      <trkpt lat="37.450170" lon="-119.645090">
        <ele>1448.371</ele>
        <time>2018-12-28T08:48:35Z</time>
      </trkpt>
      <trkpt lat="37.450100" lon="-119.645140">
        <ele>1447.999</ele>
        <time>2018-12-28T08:48:55Z</time>
      </trkpt>
      <trkpt lat="37.450050" lon="-119.645170">
        <ele>1447.714</ele>
        <time>2018-12-28T08:49:15Z</time>
      </trkpt>
      <trkpt lat="37.450010" lon="-119.645190">
        <ele>1447.324</ele>
        <time>2018-12-28T08:49:35Z</time>
      </trkpt>
      <trkpt lat="37.449960" lon="-119.645220">
        <ele>1447.058</ele>
        <time>2018-12-28T08:49:55Z</time>
      </trkpt>
      <trkpt lat="37.449900" lon="-119.645250">
        <ele>1446.468</ele>
        <time>2018-12-28T08:50:15Z</time>
      </trkpt>
      <trkpt lat="37.449840" lon="-119.645270">
        <ele>1445.744</ele>
        <time>2018-12-28T08:50:35Z</time>
      </trkpt>
      <trkpt lat="37.449800" lon="-119.645280">
        <ele>1445.243</ele>
        <time>2018-12-28T08:50:55Z</time>
      </trkpt>
      <trkpt lat="37.449760" lon="-119.645300">
        <ele>1444.899</ele>
        <time>2018-12-28T08:51:15Z</time>
      </trkpt>
      <trkpt lat="37.449720" lon="-119.645320">
        <ele>1444.507</ele>
        <time>2018-12-28T08:51:35Z</time>
      </trkpt>
      <trkpt lat="37.449680" lon="-119.645350">
        <ele>1444.327</ele>
        <time>2018-12-28T08:51:55Z</time>
      </trkpt>
      <trkpt lat="37.449650" lon="-119.645390">
        <ele>1444.508</ele>
        <time>2018-12-28T08:52:15Z</time>
      </trkpt>
      <trkpt lat="37.449580" lon="-119.645460">
        <ele>1444.492</ele>
        <time>2018-12-28T08:52:35Z</time>
      </trkpt>
      <trkpt lat="37.449510" lon="-119.645560">
        <ele>1444.760</ele>
        <time>2018-12-28T08:52:55Z</time>
      </trkpt>
      <trkpt lat="37.449440" lon="-119.645650">
        <ele>1444.965</ele>
        <time>2018-12-28T08:53:15Z</time>
      </trkpt>
      <trkpt lat="37.449370" lon="-119.645790">
        <ele>1446.175</ele>
        <time>2018-12-28T08:53:35Z</time>
      </trkpt>
      <trkpt lat="37.449330" lon="-119.645860">
        <ele>1446.849</ele>
        <time>2018-12-28T08:53:55Z</time>
      </trkpt>
      <trkpt lat="37.449300" lon="-119.645900">
        <ele>1447.169</ele>
        <time>2018-12-28T08:54:15Z</time>
      </trkpt>
      <trkpt lat="37.449270" lon="-119.645940">
        <ele>1447.465</ele>
        <time>2018-12-28T08:54:35Z</time>
      </trkpt>
      <trkpt lat="37.449240" lon="-119.645970">
        <ele>1447.524</ele>
        <time>2018-12-28T08:54:55Z</time>
      </trkpt>
      <trkpt lat="37.449210" lon="-119.646010">
        <ele>1447.818</ele>
        <time>2018-12-28T08:55:15Z</time>
      </trkpt>
      <trkpt lat="37.449160" lon="-119.646050">
        <ele>1447.998</ele>
        <time>2018-12-28T08:55:35Z</time>
      </trkpt>
      <trkpt lat="37.449100" lon="-119.646100">
        <ele>1448.017</ele>
        <time>2018-12-28T08:55:55Z</time>
      </trkpt>
      <trkpt lat="37.449010" lon="-119.646160">
        <ele>1448.008</ele>
        <time>2018-12-28T08:56:15Z</time>
      </trkpt>
      <trkpt lat="37.448900" lon="-119.646240">
        <ele>1448.114</ele>
        <time>2018-12-28T08:56:35Z</time>
      </trkpt>
      <trkpt lat="37.448860" lon="-119.646270">
        <ele>1448.052</ele>
        <time>2018-12-28T08:56:55Z</time>
      </trkpt>
      <trkpt lat="37.448810" lon="-119.646300">
        <ele>1447.827</ele>
        <time>2018-12-28T08:57:15Z</time>
      </trkpt>
      <trkpt lat="37.448770" lon="-119.646350">
        <ele>1448.197</ele>
        <time>2018-12-28T08:57:35Z</time>
      </trkpt>
      <trkpt lat="37.448700" lon="-119.646420">
        <ele>1448.631</ele>
        <time>2018-12-28T08:57:55Z</time>
      </trkpt>
      <trkpt lat="37.448660" lon="-119.646480">
        <ele>1449.631</ele>
        <time>2018-12-28T08:58:15Z</time>
      </trkpt>
      <trkpt lat="37.448620" lon="-119.646550">
        <ele>1450.717</ele>
        <time>2018-12-28T08:58:35Z</time>
      </trkpt>
      <trkpt lat="37.448570" lon="-119.646630">
        <ele>1451.666</ele>
        <time>2018-12-28T08:58:55Z</time>
      </trkpt>
      <trkpt lat="37.448530" lon="-119.646720">
        <ele>1452.546</ele>
        <time>2018-12-28T08:59:15Z</time>
      </trkpt>
      <trkpt lat="37.448500" lon="-119.646830">
        <ele>1453.488</ele>
        <time>2018-12-28T08:59:35Z</time>
      </trkpt>
      <trkpt lat="37.448480" lon="-119.646880">
        <ele>1453.416</ele>
        <time>2018-12-28T08:59:55Z</time>
      </trkpt>
      <trkpt lat="37.448460" lon="-119.646950">
        <ele>1453.508</ele>
        <time>2018-12-28T09:00:15Z</time>
      </trkpt>
      <trkpt lat="37.448440" lon="-119.647030">
        <ele>1453.687</ele>
        <time>2018-12-28T09:00:35Z</time>
      </trkpt>
      <trkpt lat="37.448430" lon="-119.647080">
        <ele>1453.815</ele>
        <time>2018-12-28T09:00:55Z</time>
      </trkpt>
      <trkpt lat="37.448430" lon="-119.647130">
        <ele>1453.990</ele>
        <time>2018-12-28T09:01:15Z</time>
      </trkpt>
      <trkpt lat="37.448430" lon="-119.647180">
        <ele>1454.130</ele>
        <time>2018-12-28T09:01:35Z</time>
      </trkpt>
      <trkpt lat="37.448430" lon="-119.647280">
        <ele>1454.464</ele>
        <time>2018-12-28T09:01:55Z</time>
      </trkpt>
      <trkpt lat="37.448440" lon="-119.647400">
        <ele>1455.284</ele>
        <time>2018-12-28T09:02:15Z</time>
      </trkpt>
      <trkpt lat="37.448450" lon="-119.647520">
        <ele>1456.660</ele>
        <time>2018-12-28T09:02:35Z</time>
      </trkpt>
      <trkpt lat="37.448460" lon="-119.647670">
        <ele>1458.019</ele>
        <time>2018-12-28T09:02:55Z</time>
      </trkpt>
      <trkpt lat="37.448480" lon="-119.647790">
        <ele>1457.939</ele>
        <time>2018-12-28T09:03:15Z</time>
      </trkpt>
      <trkpt lat="37.448510" lon="-119.647970">
        <ele>1457.901</ele>
        <time>2018-12-28T09:03:35Z</time>
      </trkpt>
      <trkpt lat="37.448530" lon="-119.648120">
        <ele>1457.821</ele>
        <time>2018-12-28T09:03:55Z</time>
      </trkpt>
      <trkpt lat="37.448560" lon="-119.648270">
        <ele>1457.608</ele>
        <time>2018-12-28T09:04:15Z</time>
      </trkpt>
      <trkpt lat="37.448570" lon="-119.648330">
        <ele>1457.476</ele>
        <time>2018-12-28T09:04:35Z</time>
      </trkpt>
      <trkpt lat="37.448590" lon="-119.648400">
        <ele>1457.394</ele>
        <time>2018-12-28T09:04:55Z</time>
      </trkpt>
      <trkpt lat="37.448620" lon="-119.648470">
        <ele>1457.219</ele>
        <time>2018-12-28T09:05:15Z</time>
      </trkpt>
      <trkpt lat="37.448650" lon="-119.648560">
        <ele>1456.999</ele>
        <time>2018-12-28T09:05:35Z</time>
      </trkpt>
      <trkpt lat="37.448700" lon="-119.648640">
        <ele>1456.823</ele>
        <time>2018-12-28T09:05:55Z</time>
      </trkpt>
      <trkpt lat="37.448740" lon="-119.648720">
        <ele>1456.633</ele>
        <time>2018-12-28T09:06:15Z</time>
      </trkpt>
      <trkpt lat="37.448780" lon="-119.648780">
        <ele>1456.659</ele>
        <time>2018-12-28T09:06:35Z</time>
      </trkpt>
      <trkpt lat="37.448820" lon="-119.648840">
        <ele>1456.648</ele>
        <time>2018-12-28T09:06:55Z</time>
      </trkpt>
      <trkpt lat="37.448860" lon="-119.648930">
        <ele>1456.565</ele>
        <time>2018-12-28T09:07:15Z</time>
      </trkpt>
      <trkpt lat="37.448900" lon="-119.649010">
        <ele>1456.468</ele>
        <time>2018-12-28T09:07:35Z</time>
      </trkpt>
      <trkpt lat="37.448920" lon="-119.649050">
        <ele>1456.414</ele>
        <time>2018-12-28T09:07:55Z</time>
      </trkpt>
      <trkpt lat="37.448950" lon="-119.649110">
        <ele>1456.408</ele>
        <time>2018-12-28T09:08:15Z</time>
      </trkpt>
      <trkpt lat="37.448960" lon="-119.649170">
        <ele>1456.129</ele>
        <time>2018-12-28T09:08:35Z</time>
      </trkpt>
      <trkpt lat="37.448980" lon="-119.649230">
        <ele>1456.067</ele>
        <time>2018-12-28T09:08:55Z</time>
      </trkpt>
      <trkpt lat="37.448980" lon="-119.649300">
        <ele>1455.772</ele>
        <time>2018-12-28T09:09:15Z</time>
      </trkpt>
      <trkpt lat="37.448990" lon="-119.649370">
        <ele>1455.562</ele>
        <time>2018-12-28T09:09:35Z</time>
      </trkpt>
      <trkpt lat="37.449010" lon="-119.649570">
        <ele>1454.836</ele>
        <time>2018-12-28T09:09:55Z</time>
      </trkpt>
      <trkpt lat="37.449030" lon="-119.649710">
        <ele>1454.316</ele>
        <time>2018-12-28T09:10:15Z</time>
      </trkpt>
      <trkpt lat="37.449050" lon="-119.650050">
        <ele>1453.032</ele>
        <time>2018-12-28T09:10:35Z</time>
      </trkpt>
      <trkpt lat="37.449060" lon="-119.650220">
        <ele>1452.861</ele>
        <time>2018-12-28T09:10:55Z</time>
      </trkpt>
      <trkpt lat="37.449060" lon="-119.650300">
        <ele>1453.063</ele>
        <time>2018-12-28T09:11:15Z</time>
      </trkpt>
      <trkpt lat="37.449060" lon="-119.650380">
        <ele>1453.244</ele>
        <time>2018-12-28T09:11:35Z</time>
      </trkpt>
      <trkpt lat="37.449050" lon="-119.650470">
        <ele>1453.518</ele>
        <time>2018-12-28T09:11:55Z</time>
      </trkpt>
      <trkpt lat="37.449040" lon="-119.650520">
        <ele>1453.808</ele>
        <time>2018-12-28T09:12:15Z</time>
      </trkpt>
      <trkpt lat="37.449020" lon="-119.650580">
        <ele>1454.029</ele>
        <time>2018-12-28T09:12:35Z</time>
      </trkpt>
      <trkpt lat="37.448990" lon="-119.650650">
        <ele>1454.147</ele>
        <time>2018-12-28T09:12:55Z</time>
      </trkpt>
      <trkpt lat="37.448960" lon="-119.650710">
        <ele>1454.232</ele>
        <time>2018-12-28T09:13:15Z</time>
      </trkpt>
      <trkpt lat="37.448930" lon="-119.650770">
        <ele>1454.392</ele>
        <time>2018-12-28T09:13:35Z</time>
      </trkpt>
      <trkpt lat="37.448880" lon="-119.650850">
        <ele>1454.526</ele>
        <time>2018-12-28T09:13:55Z</time>
      </trkpt>
      <trkpt lat="37.448830" lon="-119.650900">
        <ele>1454.546</ele>
        <time>2018-12-28T09:14:15Z</time>
      </trkpt>
      <trkpt lat="37.448810" lon="-119.650920">
        <ele>1454.632</ele>
        <time>2018-12-28T09:14:35Z</time>
      </trkpt>
      <trkpt lat="37.448780" lon="-119.650940">
        <ele>1454.591</ele>
        <time>2018-12-28T09:14:55Z</time>
      </trkpt>
      <trkpt lat="37.448750" lon="-119.650970">
        <ele>1454.638</ele>
        <time>2018-12-28T09:15:15Z</time>
      </trkpt>
      <trkpt lat="37.448720" lon="-119.650990">
        <ele>1454.570</ele>
        <time>2018-12-28T09:15:35Z</time>
      </trkpt>
      <trkpt lat="37.448690" lon="-119.651010">
        <ele>1454.517</ele>
        <time>2018-12-28T09:15:55Z</time>
      </trkpt>
      <trkpt lat="37.448650" lon="-119.651020">
        <ele>1454.308</ele>
        <time>2018-12-28T09:16:15Z</time>
      </trkpt>
      <trkpt lat="37.448610" lon="-119.651040">
        <ele>1454.376</ele>
        <time>2018-12-28T09:16:35Z</time>
      </trkpt>
      <trkpt lat="37.448570" lon="-119.651040">
        <ele>1453.924</ele>
        <time>2018-12-28T09:16:55Z</time>
      </trkpt>
      <trkpt lat="37.448540" lon="-119.651050">
        <ele>1453.839</ele>
        <time>2018-12-28T09:17:15Z</time>
      </trkpt>
      <trkpt lat="37.448490" lon="-119.651050">
        <ele>1453.469</ele>
        <time>2018-12-28T09:17:35Z</time>
      </trkpt>
      <trkpt lat="37.448440" lon="-119.651050">
        <ele>1453.263</ele>
        <time>2018-12-28T09:17:55Z</time>
      </trkpt>
      <trkpt lat="37.448390" lon="-119.651040">
        <ele>1452.983</ele>
        <time>2018-12-28T09:18:15Z</time>
      </trkpt>
      <trkpt lat="37.448340" lon="-119.651020">
        <ele>1452.499</ele>
        <time>2018-12-28T09:18:35Z</time>
      </trkpt>
      <trkpt lat="37.448230" lon="-119.650980">
        <ele>1451.568</ele>
        <time>2018-12-28T09:18:55Z</time>
      </trkpt>
      <trkpt lat="37.448120" lon="-119.650950">
        <ele>1451.027</ele>
        <time>2018-12-28T09:19:15Z</time>
      </trkpt>
      <trkpt lat="37.448030" lon="-119.650920">
        <ele>1450.868</ele>
        <time>2018-12-28T09:19:35Z</time>
      </trkpt>
      <trkpt lat="37.447910" lon="-119.650890">
        <ele>1450.514</ele>
        <time>2018-12-28T09:19:55Z</time>
      </trkpt>
      <trkpt lat="37.447780" lon="-119.650870">
        <ele>1450.408</ele>
        <time>2018-12-28T09:20:15Z</time>
      </trkpt>
      <trkpt lat="37.447670" lon="-119.650850">
        <ele>1450.235</ele>
        <time>2018-12-28T09:20:35Z</time>
      </trkpt>
      <trkpt lat="37.447600" lon="-119.650840">
        <ele>1450.243</ele>
        <time>2018-12-28T09:20:55Z</time>
      </trkpt>
      <trkpt lat="37.447540" lon="-119.650830">
        <ele>1450.038</ele>
        <time>2018-12-28T09:21:15Z</time>
      </trkpt>
      <trkpt lat="37.447460" lon="-119.650820">
        <ele>1449.998</ele>
        <time>2018-12-28T09:21:35Z</time>
      </trkpt>
      <trkpt lat="37.447360" lon="-119.650820">
        <ele>1449.972</ele>
        <time>2018-12-28T09:21:55Z</time>
      </trkpt>
      <trkpt lat="37.447280" lon="-119.650820">
        <ele>1449.992</ele>
        <time>2018-12-28T09:22:15Z</time>
      </trkpt>
      <trkpt lat="37.447190" lon="-119.650820">
        <ele>1450.078</ele>
        <time>2018-12-28T09:22:35Z</time>
      </trkpt>
      <trkpt lat="37.446760" lon="-119.650830">
        <ele>1450.277</ele>
        <time>2018-12-28T09:22:55Z</time>
      </trkpt>
      <trkpt lat="37.446550" lon="-119.650830">
        <ele>1449.682</ele>
        <time>2018-12-28T09:23:15Z</time>
      </trkpt>
      <trkpt lat="37.446470" lon="-119.650840">
        <ele>1449.743</ele>
        <time>2018-12-28T09:23:35Z</time>
      </trkpt>
      <trkpt lat="37.446400" lon="-119.650860">
        <ele>1449.817</ele>
        <time>2018-12-28T09:23:55Z</time>
      </trkpt>
      <trkpt lat="37.446320" lon="-119.650890">
        <ele>1449.808</ele>
        <time>2018-12-28T09:24:15Z</time>
      </trkpt>
      <trkpt lat="37.446240" lon="-119.650920">
        <ele>1449.891</ele>
        <time>2018-12-28T09:24:35Z</time>
      </trkpt>
      <trkpt lat="37.446190" lon="-119.650950">
        <ele>1450.219</ele>
        <time>2018-12-28T09:24:55Z</time>
      </trkpt>
      <trkpt lat="37.446140" lon="-119.650980">
        <ele>1450.554</ele>
        <time>2018-12-28T09:25:15Z</time>
      </trkpt>
      <trkpt lat="37.446090" lon="-119.651020">
        <ele>1450.854</ele>
        <time>2018-12-28T09:25:35Z</time>
      </trkpt>
      <trkpt lat="37.446030" lon="-119.651090">
        <ele>1450.848</ele>
        <time>2018-12-28T09:25:55Z</time>
      </trkpt>
      <trkpt lat="37.445970" lon="-119.651160">
        <ele>1450.428</ele>
        <time>2018-12-28T09:26:15Z</time>
      </trkpt>
      <trkpt lat="37.445920" lon="-119.651230">
        <ele>1449.994</ele>
        <time>2018-12-28T09:26:35Z</time>
      </trkpt>
      <trkpt lat="37.445790" lon="-119.651440">
        <ele>1449.723</ele>
        <time>2018-12-28T09:26:55Z</time>
      </trkpt>
      <trkpt lat="37.445140" lon="-119.652650">
        <ele>1436.346</ele>
        <time>2018-12-28T09:27:15Z</time>
      </trkpt>
      <trkpt lat="37.444850" lon="-119.653190">
        <ele>1437.388</ele>
        <time>2018-12-28T09:27:35Z</time>
      </trkpt>
      <trkpt lat="37.444770" lon="-119.653290">
        <ele>1438.016</ele>
        <time>2018-12-28T09:27:55Z</time>
      </trkpt>
      <trkpt lat="37.444730" lon="-119.653340">
        <ele>1438.308</ele>
        <time>2018-12-28T09:28:15Z</time>
      </trkpt>
      <trkpt lat="37.444670" lon="-119.653390">
        <ele>1438.487</ele>
        <time>2018-12-28T09:28:35Z</time>
      </trkpt>
      <trkpt lat="37.444650" lon="-119.653410">
        <ele>1438.525</ele>
        <time>2018-12-28T09:28:55Z</time>
      </trkpt>
      <trkpt lat="37.444610" lon="-119.653430">
        <ele>1438.490</ele>
        <time>2018-12-28T09:29:15Z</time>
      </trkpt>
      <trkpt lat="37.444550" lon="-119.653450">
        <ele>1438.380</ele>
        <time>2018-12-28T09:29:35Z</time>
      </trkpt>
      <trkpt lat="37.444460" lon="-119.653490">
        <ele>1438.454</ele>
        <time>2018-12-28T09:29:55Z</time>
      </trkpt>
      <trkpt lat="37.444380" lon="-119.653510">
        <ele>1438.394</ele>
        <time>2018-12-28T09:30:15Z</time>
      </trkpt>
      <trkpt lat="37.444310" lon="-119.653520">
        <ele>1438.170</ele>
        <time>2018-12-28T09:30:35Z</time>
      </trkpt>
      <trkpt lat="37.444210" lon="-119.653550">
        <ele>1437.979</ele>
        <time>2018-12-28T09:30:55Z</time>
      </trkpt>
      <trkpt lat="37.444150" lon="-119.653550">
        <ele>1437.642</ele>
        <time>2018-12-28T09:31:15Z</time>
      </trkpt>
      <trkpt lat="37.444080" lon="-119.653560">
        <ele>1437.422</ele>
        <time>2018-12-28T09:31:35Z</time>
      </trkpt>
      <trkpt lat="37.443990" lon="-119.653570">
        <ele>1437.314</ele>
        <time>2018-12-28T09:31:55Z</time>
      </trkpt>
      <trkpt lat="37.443930" lon="-119.653570">
        <ele>1437.608</ele>
        <time>2018-12-28T09:32:15Z</time>
      </trkpt>
      <trkpt lat="37.443890" lon="-119.653570">
        <ele>1437.737</ele>
        <time>2018-12-28T09:32:35Z</time>
      </trkpt>
      <trkpt lat="37.443860" lon="-119.653560">
        <ele>1437.835</ele>
        <time>2018-12-28T09:32:55Z</time>
      </trkpt>
      <trkpt lat="37.443820" lon="-119.653560">
        <ele>1437.930</ele>
        <time>2018-12-28T09:33:15Z</time>
      </trkpt>
      <trkpt lat="37.443780" lon="-119.653540">
        <ele>1437.990</ele>
        <time>2018-12-28T09:33:35Z</time>
      </trkpt>
      <trkpt lat="37.443720" lon="-119.653510">
        <ele>1438.074</ele>
        <time>2018-12-28T09:33:55Z</time>
      </trkpt>
      <trkpt lat="37.443650" lon="-119.653470">
        <ele>1438.174</ele>
        <time>2018-12-28T09:34:15Z</time>
      </trkpt>
      <trkpt lat="37.443580" lon="-119.653410">
        <ele>1438.020</ele>
        <time>2018-12-28T09:34:35Z</time>
      </trkpt>
      <trkpt lat="37.443540" lon="-119.653370">
        <ele>1438.089</ele>
        <time>2018-12-28T09:34:55Z</time>
      </trkpt>
      <trkpt lat="37.443500" lon="-119.653320">
        <ele>1437.934</ele>
        <time>2018-12-28T09:35:15Z</time>
      </trkpt>
      <trkpt lat="37.443460" lon="-119.653250">
        <ele>1437.855</ele>
        <time>2018-12-28T09:35:35Z</time>
      </trkpt>
      <trkpt lat="37.443430" lon="-119.653170">
        <ele>1437.910</ele>
        <time>2018-12-28T09:35:55Z</time>
      </trkpt>
      <trkpt lat="37.443400" lon="-119.653040">
        <ele>1438.208</ele>
        <time>2018-12-28T09:36:15Z</time>
      </trkpt>
      <trkpt lat="37.443380" lon="-119.652900">
        <ele>1438.366</ele>
        <time>2018-12-28T09:36:35Z</time>
      </trkpt>
      <trkpt lat="37.443370" lon="-119.652720">
        <ele>1438.194</ele>
        <time>2018-12-28T09:36:55Z</time>
      </trkpt>
      <trkpt lat="37.443340" lon="-119.652420">
        <ele>1437.579</ele>
        <time>2018-12-28T09:37:15Z</time>
      </trkpt>
      <trkpt lat="37.443320" lon="-119.652320">
        <ele>1437.369</ele>
        <time>2018-12-28T09:37:35Z</time>
      </trkpt>
      <trkpt lat="37.443300" lon="-119.652210">
        <ele>1436.713</ele>
        <time>2018-12-28T09:37:55Z</time>
      </trkpt>
      <trkpt lat="37.443280" lon="-119.652110">
        <ele>1436.343</ele>
        <time>2018-12-28T09:38:15Z</time>
      </trkpt>
      <trkpt lat="37.443240" lon="-119.652020">
        <ele>1435.959</ele>
        <time>2018-12-28T09:38:35Z</time>
      </trkpt>
      <trkpt lat="37.443150" lon="-119.651870">
        <ele>1435.468</ele>
        <time>2018-12-28T09:38:55Z</time>
      </trkpt>
      <trkpt lat="37.443060" lon="-119.651780">
        <ele>1435.569</ele>
        <time>2018-12-28T09:39:15Z</time>
      </trkpt>
      <trkpt lat="37.443010" lon="-119.651720">
        <ele>1435.104</ele>
        <time>2018-12-28T09:39:35Z</time>
      </trkpt>
      <trkpt lat="37.442950" lon="-119.651670">
        <ele>1434.924</ele>
        <time>2018-12-28T09:39:55Z</time>
      </trkpt>
      <trkpt lat="37.442860" lon="-119.651610">
        <ele>1434.808</ele>
        <time>2018-12-28T09:40:15Z</time>
      </trkpt>
      <trkpt lat="37.442770" lon="-119.651540">
        <ele>1434.459</ele>
        <time>2018-12-28T09:40:35Z</time>
      </trkpt>
      <trkpt lat="37.442600" lon="-119.651430">
        <ele>1434.067</ele>
        <time>2018-12-28T09:40:55Z</time>
      </trkpt>
      <trkpt lat="37.442370" lon="-119.651270">
        <ele>1432.052</ele>
        <time>2018-12-28T09:41:15Z</time>
      </trkpt>
      <trkpt lat="37.442280" lon="-119.651200">
        <ele>1431.692</ele>
        <time>2018-12-28T09:41:35Z</time>
      </trkpt>
      <trkpt lat="37.442220" lon="-119.651140">
        <ele>1431.316</ele>
        <time>2018-12-28T09:41:55Z</time>
      </trkpt>
      <trkpt lat="37.442170" lon="-119.651090">
        <ele>1431.056</ele>
        <time>2018-12-28T09:42:15Z</time>
      </trkpt>
      <trkpt lat="37.442110" lon="-119.651020">
        <ele>1430.632</ele>
        <time>2018-12-28T09:42:35Z</time>
      </trkpt>
      <trkpt lat="37.442050" lon="-119.650950">
        <ele>1430.481</ele>
        <time>2018-12-28T09:42:55Z</time>
      </trkpt>
      <trkpt lat="37.441970" lon="-119.650800">
        <ele>1430.047</ele>
        <time>2018-12-28T09:43:15Z</time>
      </trkpt>
      <trkpt lat="37.441930" lon="-119.650750">
        <ele>1429.929</ele>
        <time>2018-12-28T09:43:35Z</time>
      </trkpt>
      <trkpt lat="37.441830" lon="-119.650620">
        <ele>1429.621</ele>
        <time>2018-12-28T09:43:55Z</time>
      </trkpt>
      <trkpt lat="37.441470" lon="-119.650050">
        <ele>1429.108</ele>
        <time>2018-12-28T09:44:15Z</time>
      </trkpt>
      <trkpt lat="37.440460" lon="-119.648440">
        <ele>1416.957</ele>
        <time>2018-12-28T09:44:35Z</time>
      </trkpt>
      <trkpt lat="37.439710" lon="-119.647300">
        <ele>1409.945</ele>
        <time>2018-12-28T09:44:55Z</time>
      </trkpt>
      <trkpt lat="37.439510" lon="-119.647000">
        <ele>1408.650</ele>
        <time>2018-12-28T09:45:15Z</time>
      </trkpt>
      <trkpt lat="37.439340" lon="-119.646720">
        <ele>1408.530</ele>
        <time>2018-12-28T09:45:35Z</time>
      </trkpt>
      <trkpt lat="37.439230" lon="-119.646500">
        <ele>1408.154</ele>
        <time>2018-12-28T09:45:55Z</time>
      </trkpt>
      <trkpt lat="37.439160" lon="-119.646360">
        <ele>1407.994</ele>
        <time>2018-12-28T09:46:15Z</time>
      </trkpt>
      <trkpt lat="37.439050" lon="-119.646110">
        <ele>1407.170</ele>
        <time>2018-12-28T09:46:35Z</time>
      </trkpt>
      <trkpt lat="37.438980" lon="-119.645910">
        <ele>1406.379</ele>
        <time>2018-12-28T09:46:55Z</time>
      </trkpt>
      <trkpt lat="37.438900" lon="-119.645620">
        <ele>1405.236</ele>
        <time>2018-12-28T09:47:15Z</time>
      </trkpt>
      <trkpt lat="37.438840" lon="-119.645360">
        <ele>1402.417</ele>
        <time>2018-12-28T09:47:35Z</time>
      </trkpt>
      <trkpt lat="37.438790" lon="-119.645080">
        <ele>1400.318</ele>
        <time>2018-12-28T09:47:55Z</time>
      </trkpt>
      <trkpt lat="37.438750" lon="-119.644700">
        <ele>1398.608</ele>
        <time>2018-12-28T09:48:15Z</time>
      </trkpt>
      <trkpt lat="37.438730" lon="-119.644280">
        <ele>1395.776</ele>
        <time>2018-12-28T09:48:35Z</time>
      </trkpt>
      <trkpt lat="37.438720" lon="-119.644110">
        <ele>1394.324</ele>
        <time>2018-12-28T09:48:55Z</time>
      </trkpt>
      <trkpt lat="37.438710" lon="-119.643980">
        <ele>1393.239</ele>
        <time>2018-12-28T09:49:15Z</time>
      </trkpt>
      <trkpt lat="37.438690" lon="-119.643830">
        <ele>1391.789</ele>
        <time>2018-12-28T09:49:35Z</time>
      </trkpt>
      <trkpt lat="37.438670" lon="-119.643690">
        <ele>1389.793</ele>
        <time>2018-12-28T09:49:55Z</time>
      </trkpt>
      <trkpt lat="37.438610" lon="-119.643540">
        <ele>1387.623</ele>
        <time>2018-12-28T09:50:15Z</time>
      </trkpt>
      <trkpt lat="37.438530" lon="-119.643400">
        <ele>1386.529</ele>
        <time>2018-12-28T09:50:35Z</time>
      </trkpt>
      <trkpt lat="37.438450" lon="-119.643280">
        <ele>1386.118</ele>
        <time>2018-12-28T09:50:55Z</time>
      </trkpt>
      <trkpt lat="37.438370" lon="-119.643190">
        <ele>1385.765</ele>
        <time>2018-12-28T09:51:15Z</time>
      </trkpt>
      <trkpt lat="37.438270" lon="-119.643100">
        <ele>1385.468</ele>
        <time>2018-12-28T09:51:35Z</time>
      </trkpt>
      <trkpt lat="37.438160" lon="-119.643030">
        <ele>1385.114</ele>
        <time>2018-12-28T09:51:55Z</time>
      </trkpt>
      <trkpt lat="37.438040" lon="-119.642980">
        <ele>1384.208</ele>
        <time>2018-12-28T09:52:15Z</time>
      </trkpt>
      <trkpt lat="37.437940" lon="-119.642960">
        <ele>1383.789</ele>
        <time>2018-12-28T09:52:35Z</time>
      </trkpt>
      <trkpt lat="37.437840" lon="-119.642960">
        <ele>1383.057</ele>
        <time>2018-12-28T09:52:55Z</time>
      </trkpt>
      <trkpt lat="37.437720" lon="-119.642980">
        <ele>1382.492</ele>
        <time>2018-12-28T09:53:15Z</time>
      </trkpt>
      <trkpt lat="37.437620" lon="-119.643010">
        <ele>1381.972</ele>
        <time>2018-12-28T09:53:35Z</time>
      </trkpt>
      <trkpt lat="37.437490" lon="-119.643080">
        <ele>1381.096</ele>
        <time>2018-12-28T09:53:55Z</time>
      </trkpt>
      <trkpt lat="37.437090" lon="-119.643320">
        <ele>1375.176</ele>
        <time>2018-12-28T09:54:15Z</time>
      </trkpt>
      <trkpt lat="37.437000" lon="-119.643380">
        <ele>1374.012</ele>
        <time>2018-12-28T09:54:35Z</time>
      </trkpt>
      <trkpt lat="37.436690" lon="-119.643590">
        <ele>1373.791</ele>
        <time>2018-12-28T09:54:55Z</time>
      </trkpt>
      <trkpt lat="37.436470" lon="-119.643710">
        <ele>1374.298</ele>
        <time>2018-12-28T09:55:15Z</time>
      </trkpt>
      <trkpt lat="37.436360" lon="-119.643740">
        <ele>1374.115</ele>
        <time>2018-12-28T09:55:35Z</time>
      </trkpt>
      <trkpt lat="37.436290" lon="-119.643760">
        <ele>1373.926</ele>
        <time>2018-12-28T09:55:55Z</time>
      </trkpt>
      <trkpt lat="37.436230" lon="-119.643770">
        <ele>1373.808</ele>
        <time>2018-12-28T09:56:15Z</time>
      </trkpt>
      <trkpt lat="37.436170" lon="-119.643780">
        <ele>1374.272</ele>
        <time>2018-12-28T09:56:35Z</time>
      </trkpt>
      <trkpt lat="37.436100" lon="-119.643780">
        <ele>1374.580</ele>
        <time>2018-12-28T09:56:55Z</time>
      </trkpt>
      <trkpt lat="37.436040" lon="-119.643770">
        <ele>1374.735</ele>
        <time>2018-12-28T09:57:15Z</time>
      </trkpt>
      <trkpt lat="37.435960" lon="-119.643750">
        <ele>1374.825</ele>
        <time>2018-12-28T09:57:35Z</time>
      </trkpt>
      <trkpt lat="37.435900" lon="-119.643720">
        <ele>1374.529</ele>
        <time>2018-12-28T09:57:55Z</time>
      </trkpt>
      <trkpt lat="37.435810" lon="-119.643660">
        <ele>1373.829</ele>
        <time>2018-12-28T09:58:15Z</time>
      </trkpt>
      <trkpt lat="37.435750" lon="-119.643610">
        <ele>1373.135</ele>
        <time>2018-12-28T09:58:35Z</time>
      </trkpt>
      <trkpt lat="37.435690" lon="-119.643560">
        <ele>1372.434</ele>
        <time>2018-12-28T09:58:55Z</time>
      </trkpt>
      <trkpt lat="37.435630" lon="-119.643490">
        <ele>1372.275</ele>
        <time>2018-12-28T09:59:15Z</time>
      </trkpt>
      <trkpt lat="37.435590" lon="-119.643410">
        <ele>1371.828</ele>
        <time>2018-12-28T09:59:35Z</time>
      </trkpt>
      <trkpt lat="37.435540" lon="-119.643340">
        <ele>1372.020</ele>
        <time>2018-12-28T09:59:55Z</time>
      </trkpt>
      <trkpt lat="37.435510" lon="-119.643260">
        <ele>1371.708</ele>
        <time>2018-12-28T10:00:15Z</time>
      </trkpt>
      <trkpt lat="37.435480" lon="-119.643150">
        <ele>1371.230</ele>
        <time>2018-12-28T10:00:35Z</time>
      </trkpt>
      <trkpt lat="37.435460" lon="-119.643040">
        <ele>1370.628</ele>
        <time>2018-12-28T10:00:55Z</time>
      </trkpt>
      <trkpt lat="37.435450" lon="-119.642910">
        <ele>1369.573</ele>
        <time>2018-12-28T10:01:15Z</time>
      </trkpt>
      <trkpt lat="37.435440" lon="-119.642820">
        <ele>1368.213</ele>
        <time>2018-12-28T10:01:35Z</time>
      </trkpt>
      <trkpt lat="37.435450" lon="-119.642730">
        <ele>1366.467</ele>
        <time>2018-12-28T10:01:55Z</time>
      </trkpt>
      <trkpt lat="37.435460" lon="-119.642640">
        <ele>1364.737</ele>
        <time>2018-12-28T10:02:15Z</time>
      </trkpt>
      <trkpt lat="37.435490" lon="-119.642540">
        <ele>1364.243</ele>
        <time>2018-12-28T10:02:35Z</time>
      </trkpt>
      <trkpt lat="37.435540" lon="-119.642400">
        <ele>1363.382</ele>
        <time>2018-12-28T10:02:55Z</time>
      </trkpt>
      <trkpt lat="37.435580" lon="-119.642290">
        <ele>1363.763</ele>
        <time>2018-12-28T10:03:15Z</time>
      </trkpt>
      <trkpt lat="37.435650" lon="-119.642160">
        <ele>1363.644</ele>
        <time>2018-12-28T10:03:35Z</time>
      </trkpt>
      <trkpt lat="37.435870" lon="-119.641810">
        <ele>1362.818</ele>
        <time>2018-12-28T10:03:55Z</time>
      </trkpt>
      <trkpt lat="37.436110" lon="-119.641430">
        <ele>1362.808</ele>
        <time>2018-12-28T10:04:15Z</time>
      </trkpt>
      <trkpt lat="37.436410" lon="-119.641080">
        <ele>1361.919</ele>
        <time>2018-12-28T10:04:35Z</time>
      </trkpt>
      <trkpt lat="37.436470" lon="-119.641000">
        <ele>1361.737</ele>
        <time>2018-12-28T10:04:55Z</time>
      </trkpt>
      <trkpt lat="37.436550" lon="-119.640920">
        <ele>1360.852</ele>
        <time>2018-12-28T10:05:15Z</time>
      </trkpt>
      <trkpt lat="37.436680" lon="-119.640810">
        <ele>1357.912</ele>
        <time>2018-12-28T10:05:35Z</time>
      </trkpt>
      <trkpt lat="37.436790" lon="-119.640720">
        <ele>1354.186</ele>
        <time>2018-12-28T10:05:55Z</time>
      </trkpt>
      <trkpt lat="37.436890" lon="-119.640620">
        <ele>1352.436</ele>
        <time>2018-12-28T10:06:15Z</time>
      </trkpt>
      <trkpt lat="37.436980" lon="-119.640530">
        <ele>1351.222</ele>
        <time>2018-12-28T10:06:35Z</time>
      </trkpt>
      <trkpt lat="37.437060" lon="-119.640450">
        <ele>1349.981</ele>
        <time>2018-12-28T10:06:55Z</time>
      </trkpt>
      <trkpt lat="37.437130" lon="-119.640350">
        <ele>1349.127</ele>
        <time>2018-12-28T10:07:15Z</time>
      </trkpt>
      <trkpt lat="37.437180" lon="-119.640240">
        <ele>1349.068</ele>
        <time>2018-12-28T10:07:35Z</time>
      </trkpt>
      <trkpt lat="37.437220" lon="-119.640130">
        <ele>1349.214</ele>
        <time>2018-12-28T10:07:55Z</time>
      </trkpt>
      <trkpt lat="37.437250" lon="-119.639980">
        <ele>1349.108</ele>
        <time>2018-12-28T10:08:15Z</time>
      </trkpt>
      <trkpt lat="37.437280" lon="-119.639820">
        <ele>1348.715</ele>
        <time>2018-12-28T10:08:35Z</time>
      </trkpt>
      <trkpt lat="37.437290" lon="-119.639700">
        <ele>1348.073</ele>
        <time>2018-12-28T10:08:55Z</time>
      </trkpt>
      <trkpt lat="37.437280" lon="-119.639590">
        <ele>1348.038</ele>
        <time>2018-12-28T10:09:15Z</time>
      </trkpt>
      <trkpt lat="37.437260" lon="-119.639490">
        <ele>1347.578</ele>
        <time>2018-12-28T10:09:35Z</time>
      </trkpt>
      <trkpt lat="37.437230" lon="-119.639380">
        <ele>1347.262</ele>
        <time>2018-12-28T10:09:55Z</time>
      </trkpt>
      <trkpt lat="37.437190" lon="-119.639270">
        <ele>1346.512</ele>
        <time>2018-12-28T10:10:15Z</time>
      </trkpt>
      <trkpt lat="37.437140" lon="-119.639160">
        <ele>1345.668</ele>
        <time>2018-12-28T10:10:35Z</time>
      </trkpt>
      <trkpt lat="37.437090" lon="-119.639070">
        <ele>1345.557</ele>
        <time>2018-12-28T10:10:55Z</time>
      </trkpt>
      <trkpt lat="37.437040" lon="-119.639000">
        <ele>1344.957</ele>
        <time>2018-12-28T10:11:15Z</time>
      </trkpt>
      <trkpt lat="37.436970" lon="-119.638920">
        <ele>1344.000</ele>
        <time>2018-12-28T10:11:35Z</time>
      </trkpt>
      <trkpt lat="37.436890" lon="-119.638840">
        <ele>1343.720</ele>
        <time>2018-12-28T10:11:55Z</time>
      </trkpt>
      <trkpt lat="37.436820" lon="-119.638790">
        <ele>1344.308</ele>
        <time>2018-12-28T10:12:15Z</time>
      </trkpt>
      <trkpt lat="37.436710" lon="-119.638740">
        <ele>1342.398</ele>
        <time>2018-12-28T10:12:35Z</time>
      </trkpt>
      <trkpt lat="37.436620" lon="-119.638710">
        <ele>1340.246</ele>
        <time>2018-12-28T10:12:55Z</time>
      </trkpt>
      <trkpt lat="37.436540" lon="-119.638700">
        <ele>1339.221</ele>
        <time>2018-12-28T10:13:15Z</time>
      </trkpt>
      <trkpt lat="37.436460" lon="-119.638700">
        <ele>1338.311</ele>
        <time>2018-12-28T10:13:35Z</time>
      </trkpt>
      <trkpt lat="37.436350" lon="-119.638710">
        <ele>1337.345</ele>
        <time>2018-12-28T10:13:55Z</time>
      </trkpt>
      <trkpt lat="37.436210" lon="-119.638750">
        <ele>1337.015</ele>
        <time>2018-12-28T10:14:15Z</time>
      </trkpt>
      <trkpt lat="37.436060" lon="-119.638800">
        <ele>1337.321</ele>
        <time>2018-12-28T10:14:35Z</time>
      </trkpt>
      <trkpt lat="37.435730" lon="-119.638930">
        <ele>1339.190</ele>
        <time>2018-12-28T10:14:55Z</time>
      </trkpt>
      <trkpt lat="37.435670" lon="-119.638950">
        <ele>1339.395</ele>
        <time>2018-12-28T10:15:15Z</time>
      </trkpt>
      <trkpt lat="37.435610" lon="-119.638960">
        <ele>1339.249</ele>
        <time>2018-12-28T10:15:35Z</time>
      </trkpt>
      <trkpt lat="37.435560" lon="-119.638970">
        <ele>1339.123</ele>
        <time>2018-12-28T10:15:55Z</time>
      </trkpt>
      <trkpt lat="37.435490" lon="-119.638970">
        <ele>1338.708</ele>
        <time>2018-12-28T10:16:15Z</time>
      </trkpt>
      <trkpt lat="37.435370" lon="-119.638960">
        <ele>1337.822</ele>
        <time>2018-12-28T10:16:35Z</time>
      </trkpt>
      <trkpt lat="37.435130" lon="-119.638920">
        <ele>1335.990</ele>
        <time>2018-12-28T10:16:55Z</time>
      </trkpt>
      <trkpt lat="37.434860" lon="-119.638840">
        <ele>1330.825</ele>
        <time>2018-12-28T10:17:15Z</time>
      </trkpt>
      <trkpt lat="37.434760" lon="-119.638810">
        <ele>1328.725</ele>
        <time>2018-12-28T10:17:35Z</time>
      </trkpt>
      <trkpt lat="37.434680" lon="-119.638790">
        <ele>1327.139</ele>
        <time>2018-12-28T10:17:55Z</time>
      </trkpt>
      <trkpt lat="37.434590" lon="-119.638780">
        <ele>1325.839</ele>
        <time>2018-12-28T10:18:15Z</time>
      </trkpt>
      <trkpt lat="37.434490" lon="-119.638780">
        <ele>1325.175</ele>
        <time>2018-12-28T10:18:35Z</time>
      </trkpt>
      <trkpt lat="37.434390" lon="-119.638790">
        <ele>1324.764</ele>
        <time>2018-12-28T10:18:55Z</time>
      </trkpt>
      <trkpt lat="37.434280" lon="-119.638810">
        <ele>1324.346</ele>
        <time>2018-12-28T10:19:15Z</time>
      </trkpt>
      <trkpt lat="37.434190" lon="-119.638850">
        <ele>1324.288</ele>
        <time>2018-12-28T10:19:35Z</time>
      </trkpt>
      <trkpt lat="37.434050" lon="-119.638910">
        <ele>1324.016</ele>
        <time>2018-12-28T10:19:55Z</time>
      </trkpt>
      <trkpt lat="37.433770" lon="-119.639060">
        <ele>1323.208</ele>
        <time>2018-12-28T10:20:15Z</time>
      </trkpt>
      <trkpt lat="37.433640" lon="-119.639120">
        <ele>1323.477</ele>
        <time>2018-12-28T10:20:35Z</time>
      </trkpt>
      <trkpt lat="37.433500" lon="-119.639200">
        <ele>1323.735</ele>
        <time>2018-12-28T10:20:55Z</time>
      </trkpt>
      <trkpt lat="37.433360" lon="-119.639250">
        <ele>1323.030</ele>
        <time>2018-12-28T10:21:15Z</time>
      </trkpt>
      <trkpt lat="37.433170" lon="-119.639310">
        <ele>1322.310</ele>
        <time>2018-12-28T10:21:35Z</time>
      </trkpt>
      <trkpt lat="37.433060" lon="-119.639330">
        <ele>1322.374</ele>
        <time>2018-12-28T10:21:55Z</time>
      </trkpt>
      <trkpt lat="37.432940" lon="-119.639340">
        <ele>1322.234</ele>
        <time>2018-12-28T10:22:15Z</time>
      </trkpt>
      <trkpt lat="37.432830" lon="-119.639350">
        <ele>1322.050</ele>
        <time>2018-12-28T10:22:35Z</time>
      </trkpt>
      <trkpt lat="37.432730" lon="-119.639350">
        <ele>1321.679</ele>
        <time>2018-12-28T10:22:55Z</time>
      </trkpt>
      <trkpt lat="37.431700" lon="-119.639320">
        <ele>1312.443</ele>
        <time>2018-12-28T10:23:15Z</time>
      </trkpt>
      <trkpt lat="37.430910" lon="-119.639350">
        <ele>1311.764</ele>
        <time>2018-12-28T10:23:35Z</time>
      </trkpt>
      <trkpt lat="37.429540" lon="-119.639250">
        <ele>1308.210</ele>
        <time>2018-12-28T10:23:55Z</time>
      </trkpt>
      <trkpt lat="37.429400" lon="-119.639250">
        <ele>1307.208</ele>
        <time>2018-12-28T10:24:15Z</time>
      </trkpt>
      <trkpt lat="37.429280" lon="-119.639270">
        <ele>1306.797</ele>
        <time>2018-12-28T10:24:35Z</time>
      </trkpt>
      <trkpt lat="37.429110" lon="-119.639320">
        <ele>1306.295</ele>
        <time>2018-12-28T10:24:55Z</time>
      </trkpt>
      <trkpt lat="37.428890" lon="-119.639420">
        <ele>1303.930</ele>
        <time>2018-12-28T10:25:15Z</time>
      </trkpt>
      <trkpt lat="37.428750" lon="-119.639490">
        <ele>1302.160</ele>
        <time>2018-12-28T10:25:35Z</time>
      </trkpt>
      <trkpt lat="37.428520" lon="-119.639640">
        <ele>1300.084</ele>
        <time>2018-12-28T10:25:55Z</time>
      </trkpt>
      <trkpt lat="37.428340" lon="-119.639730">
        <ele>1299.354</ele>
        <time>2018-12-28T10:26:15Z</time>
      </trkpt>
      <trkpt lat="37.428230" lon="-119.639770">
        <ele>1299.170</ele>
        <time>2018-12-28T10:26:35Z</time>
      </trkpt>
      <trkpt lat="37.428150" lon="-119.639790">
        <ele>1299.269</ele>
        <time>2018-12-28T10:26:55Z</time>
      </trkpt>
      <trkpt lat="37.428010" lon="-119.639800">
        <ele>1299.543</ele>
        <time>2018-12-28T10:27:15Z</time>
      </trkpt>
      <trkpt lat="37.427890" lon="-119.639790">
        <ele>1299.464</ele>
        <time>2018-12-28T10:27:35Z</time>
      </trkpt>
      <trkpt lat="37.427760" lon="-119.639760">
        <ele>1298.910</ele>
        <time>2018-12-28T10:27:55Z</time>
      </trkpt>
      <trkpt lat="37.427690" lon="-119.639710">
        <ele>1297.908</ele>
        <time>2018-12-28T10:28:15Z</time>
      </trkpt>
      <trkpt lat="37.427600" lon="-119.639660">
        <ele>1296.537</ele>
        <time>2018-12-28T10:28:35Z</time>
      </trkpt>
      <trkpt lat="37.427540" lon="-119.639620">
        <ele>1294.985</ele>
        <time>2018-12-28T10:28:55Z</time>
      </trkpt>
      <trkpt lat="37.427410" lon="-119.639490">
        <ele>1291.140</ele>
        <time>2018-12-28T10:29:15Z</time>
      </trkpt>
      <trkpt lat="37.427320" lon="-119.639390">
        <ele>1289.790</ele>
        <time>2018-12-28T10:29:35Z</time>
      </trkpt>
      <trkpt lat="37.427260" lon="-119.639270">
        <ele>1288.524</ele>
        <time>2018-12-28T10:29:55Z</time>
      </trkpt>
      <trkpt lat="37.427170" lon="-119.639050">
        <ele>1286.444</ele>
        <time>2018-12-28T10:30:15Z</time>
      </trkpt>
      <trkpt lat="37.427130" lon="-119.638880">
        <ele>1286.040</ele>
        <time>2018-12-28T10:30:35Z</time>
      </trkpt>
      <trkpt lat="37.427100" lon="-119.638710">
        <ele>1285.789</ele>
        <time>2018-12-28T10:30:55Z</time>
      </trkpt>
      <trkpt lat="37.427070" lon="-119.638400">
        <ele>1285.038</ele>
        <time>2018-12-28T10:31:15Z</time>
      </trkpt>
      <trkpt lat="37.427060" lon="-119.638200">
        <ele>1284.870</ele>
        <time>2018-12-28T10:31:35Z</time>
      </trkpt>
      <trkpt lat="37.427050" lon="-119.638060">
        <ele>1284.617</ele>
        <time>2018-12-28T10:31:55Z</time>
      </trkpt>
      <trkpt lat="37.427040" lon="-119.637980">
        <ele>1284.508</ele>
        <time>2018-12-28T10:32:15Z</time>
      </trkpt>
      <trkpt lat="37.427030" lon="-119.637900">
        <ele>1284.486</ele>
        <time>2018-12-28T10:32:35Z</time>
      </trkpt>
      <trkpt lat="37.427010" lon="-119.637780">
        <ele>1284.054</ele>
        <time>2018-12-28T10:32:55Z</time>
      </trkpt>
      <trkpt lat="37.426980" lon="-119.637660">
        <ele>1283.869</ele>
        <time>2018-12-28T10:33:15Z</time>
      </trkpt>
      <trkpt lat="37.426960" lon="-119.637550">
        <ele>1283.129</ele>
        <time>2018-12-28T10:33:35Z</time>
      </trkpt>
      <trkpt lat="37.426930" lon="-119.637450">
        <ele>1282.793</ele>
        <time>2018-12-28T10:33:55Z</time>
      </trkpt>
      <trkpt lat="37.426900" lon="-119.637360">
        <ele>1282.363</ele>
        <time>2018-12-28T10:34:15Z</time>
      </trkpt>
      <trkpt lat="37.426860" lon="-119.637250">
        <ele>1281.439</ele>
        <time>2018-12-28T10:34:35Z</time>
      </trkpt>
      <trkpt lat="37.426820" lon="-119.637170">
        <ele>1280.888</ele>
        <time>2018-12-28T10:34:55Z</time>
      </trkpt>
      <trkpt lat="37.426740" lon="-119.637040">
        <ele>1279.372</ele>
        <time>2018-12-28T10:35:15Z</time>
      </trkpt>
      <trkpt lat="37.426670" lon="-119.636940">
        <ele>1278.413</ele>
        <time>2018-12-28T10:35:35Z</time>
      </trkpt>
      <trkpt lat="37.426600" lon="-119.636850">
        <ele>1277.714</ele>
        <time>2018-12-28T10:35:55Z</time>
      </trkpt>
      <trkpt lat="37.426520" lon="-119.636760">
        <ele>1277.308</ele>
        <time>2018-12-28T10:36:15Z</time>
      </trkpt>
      <trkpt lat="37.426430" lon="-119.636680">
        <ele>1276.820</ele>
        <time>2018-12-28T10:36:35Z</time>
      </trkpt>
      <trkpt lat="37.426310" lon="-119.636600">
        <ele>1276.398</ele>
        <time>2018-12-28T10:36:55Z</time>
      </trkpt>
      <trkpt lat="37.426220" lon="-119.636540">
        <ele>1275.843</ele>
        <time>2018-12-28T10:37:15Z</time>
      </trkpt>
      <trkpt lat="37.426120" lon="-119.636490">
        <ele>1275.413</ele>
        <time>2018-12-28T10:37:35Z</time>
      </trkpt>
      <trkpt lat="37.426020" lon="-119.636450">
        <ele>1274.987</ele>
        <time>2018-12-28T10:37:55Z</time>
      </trkpt>
      <trkpt lat="37.425950" lon="-119.636420">
        <ele>1274.517</ele>
        <time>2018-12-28T10:38:15Z</time>
      </trkpt>
      <trkpt lat="37.425870" lon="-119.636400">
        <ele>1274.143</ele>
        <time>2018-12-28T10:38:35Z</time>
      </trkpt>
      <trkpt lat="37.425800" lon="-119.636390">
        <ele>1274.022</ele>
        <time>2018-12-28T10:38:55Z</time>
      </trkpt>
      <trkpt lat="37.425680" lon="-119.636380">
        <ele>1273.747</ele>
        <time>2018-12-28T10:39:15Z</time>
      </trkpt>
      <trkpt lat="37.425580" lon="-119.636380">
        <ele>1273.429</ele>
        <time>2018-12-28T10:39:35Z</time>
      </trkpt>
      <trkpt lat="37.425470" lon="-119.636390">
        <ele>1273.321</ele>
        <time>2018-12-28T10:39:55Z</time>
      </trkpt>
      <trkpt lat="37.425380" lon="-119.636410">
        <ele>1273.208</ele>
        <time>2018-12-28T10:40:15Z</time>
      </trkpt>
      <trkpt lat="37.425280" lon="-119.636440">
        <ele>1272.947</ele>
        <time>2018-12-28T10:40:35Z</time>
      </trkpt>
      <trkpt lat="37.425190" lon="-119.636480">
        <ele>1272.845</ele>
        <time>2018-12-28T10:40:55Z</time>
      </trkpt>
      <trkpt lat="37.425090" lon="-119.636530">
        <ele>1272.480</ele>
        <time>2018-12-28T10:41:15Z</time>
      </trkpt>
      <trkpt lat="37.425000" lon="-119.636590">
        <ele>1271.940</ele>
        <time>2018-12-28T10:41:35Z</time>
      </trkpt>
      <trkpt lat="37.424920" lon="-119.636660">
        <ele>1271.744</ele>
        <time>2018-12-28T10:41:55Z</time>
      </trkpt>
      <trkpt lat="37.424780" lon="-119.636760">
        <ele>1270.744</ele>
        <time>2018-12-28T10:42:15Z</time>
      </trkpt>
      <trkpt lat="37.424680" lon="-119.636860">
        <ele>1269.530</ele>
        <time>2018-12-28T10:42:35Z</time>
      </trkpt>
      <trkpt lat="37.424520" lon="-119.637010">
        <ele>1266.239</ele>
        <time>2018-12-28T10:42:55Z</time>
      </trkpt>
      <trkpt lat="37.424370" lon="-119.637150">
        <ele>1265.682</ele>
        <time>2018-12-28T10:43:15Z</time>
      </trkpt>
      <trkpt lat="37.424270" lon="-119.637240">
        <ele>1265.843</ele>
        <time>2018-12-28T10:43:35Z</time>
      </trkpt>
      <trkpt lat="37.424200" lon="-119.637290">
        <ele>1266.017</ele>
        <time>2018-12-28T10:43:55Z</time>
      </trkpt>
      <trkpt lat="37.424130" lon="-119.637320">
        <ele>1266.008</ele>
        <time>2018-12-28T10:44:15Z</time>
      </trkpt>
      <trkpt lat="37.424090" lon="-119.637340">
        <ele>1266.071</ele>
        <time>2018-12-28T10:44:35Z</time>
      </trkpt>
      <trkpt lat="37.424050" lon="-119.637350">
        <ele>1266.099</ele>
        <time>2018-12-28T10:44:55Z</time>
      </trkpt>
      <trkpt lat="37.424000" lon="-119.637360">
        <ele>1266.094</ele>
        <time>2018-12-28T10:45:15Z</time>
      </trkpt>
      <trkpt lat="37.423960" lon="-119.637360">
        <ele>1266.024</ele>
        <time>2018-12-28T10:45:35Z</time>
      </trkpt>
      <trkpt lat="37.423920" lon="-119.637370">
        <ele>1266.138</ele>
        <time>2018-12-28T10:45:55Z</time>
      </trkpt>
      <trkpt lat="37.423870" lon="-119.637360">
        <ele>1265.918</ele>
        <time>2018-12-28T10:46:15Z</time>
      </trkpt>
      <trkpt lat="37.423800" lon="-119.637350">
        <ele>1265.714</ele>
        <time>2018-12-28T10:46:35Z</time>
      </trkpt>
      <trkpt lat="37.423750" lon="-119.637330">
        <ele>1265.353</ele>
        <time>2018-12-28T10:46:55Z</time>
      </trkpt>
      <trkpt lat="37.423700" lon="-119.637310">
        <ele>1265.354</ele>
        <time>2018-12-28T10:47:15Z</time>
      </trkpt>
      <trkpt lat="37.423650" lon="-119.637290">
        <ele>1265.356</ele>
        <time>2018-12-28T10:47:35Z</time>
      </trkpt>
      <trkpt lat="37.423580" lon="-119.637260">
        <ele>1265.411</ele>
        <time>2018-12-28T10:47:55Z</time>
      </trkpt>
      <trkpt lat="37.423500" lon="-119.637210">
        <ele>1265.408</ele>
        <time>2018-12-28T10:48:15Z</time>
      </trkpt>
      <trkpt lat="37.423430" lon="-119.637160">
        <ele>1265.898</ele>
        <time>2018-12-28T10:48:35Z</time>
      </trkpt>
      <trkpt lat="37.423350" lon="-119.637080">
        <ele>1266.156</ele>
        <time>2018-12-28T10:48:55Z</time>
      </trkpt>
      <trkpt lat="37.423250" lon="-119.636970">
        <ele>1266.481</ele>
        <time>2018-12-28T10:49:15Z</time>
      </trkpt>
      <trkpt lat="37.423000" lon="-119.636680">
        <ele>1266.521</ele>
        <time>2018-12-28T10:49:35Z</time>
      </trkpt>
      <trkpt lat="37.422640" lon="-119.636310">
        <ele>1265.885</ele>
        <time>2018-12-28T10:49:55Z</time>
      </trkpt>
      <trkpt lat="37.422470" lon="-119.636130">
        <ele>1264.295</ele>
        <time>2018-12-28T10:50:15Z</time>
      </trkpt>
      <trkpt lat="37.422070" lon="-119.635710">
        <ele>1261.261</ele>
        <time>2018-12-28T10:50:35Z</time>
      </trkpt>
      <trkpt lat="37.421890" lon="-119.635530">
        <ele>1260.810</ele>
        <time>2018-12-28T10:50:55Z</time>
      </trkpt>
      <trkpt lat="37.421730" lon="-119.635350">
        <ele>1260.741</ele>
        <time>2018-12-28T10:51:15Z</time>
      </trkpt>
      <trkpt lat="37.421620" lon="-119.635200">
        <ele>1260.881</ele>
        <time>2018-12-28T10:51:35Z</time>
      </trkpt>
      <trkpt lat="37.421550" lon="-119.635090">
        <ele>1260.509</ele>
        <time>2018-12-28T10:51:55Z</time>
      </trkpt>
      <trkpt lat="37.421480" lon="-119.634990">
        <ele>1259.908</ele>
        <time>2018-12-28T10:52:15Z</time>
      </trkpt>
      <trkpt lat="37.421420" lon="-119.634870">
        <ele>1258.927</ele>
        <time>2018-12-28T10:52:35Z</time>
      </trkpt>
      <trkpt lat="37.421350" lon="-119.634700">
        <ele>1257.665</ele>
        <time>2018-12-28T10:52:55Z</time>
      </trkpt>
      <trkpt lat="37.421310" lon="-119.634550">
        <ele>1256.410</ele>
        <time>2018-12-28T10:53:15Z</time>
      </trkpt>
      <trkpt lat="37.421290" lon="-119.634410">
        <ele>1255.220</ele>
        <time>2018-12-28T10:53:35Z</time>
      </trkpt>
      <trkpt lat="37.421280" lon="-119.634250">
        <ele>1253.894</ele>
        <time>2018-12-28T10:53:55Z</time>
      </trkpt>
      <trkpt lat="37.421280" lon="-119.634080">
        <ele>1252.424</ele>
        <time>2018-12-28T10:54:15Z</time>
      </trkpt>
      <trkpt lat="37.421310" lon="-119.633920">
        <ele>1251.780</ele>
        <time>2018-12-28T10:54:35Z</time>
      </trkpt>
      <trkpt lat="37.421340" lon="-119.633760">
        <ele>1251.339</ele>
        <time>2018-12-28T10:54:55Z</time>
      </trkpt>
      <trkpt lat="37.421370" lon="-119.633600">
        <ele>1250.564</ele>
        <time>2018-12-28T10:55:15Z</time>
      </trkpt>
      <trkpt lat="37.421410" lon="-119.633460">
        <ele>1249.606</ele>
        <time>2018-12-28T10:55:35Z</time>
      </trkpt>
      <trkpt lat="37.421430" lon="-119.633330">
        <ele>1248.816</ele>
        <time>2018-12-28T10:55:55Z</time>
      </trkpt>
      <trkpt lat="37.421450" lon="-119.633230">
        <ele>1248.208</ele>
        <time>2018-12-28T10:56:15Z</time>
      </trkpt>
      <trkpt lat="37.421460" lon="-119.633140">
        <ele>1247.489</ele>
        <time>2018-12-28T10:56:35Z</time>
      </trkpt>
      <trkpt lat="37.421470" lon="-119.633080">
        <ele>1246.857</ele>
        <time>2018-12-28T10:56:55Z</time>
      </trkpt>
      <trkpt lat="37.421460" lon="-119.632990">
        <ele>1246.242</ele>
        <time>2018-12-28T10:57:15Z</time>
      </trkpt>
      <trkpt lat="37.421460" lon="-119.632890">
        <ele>1245.282</ele>
        <time>2018-12-28T10:57:35Z</time>
      </trkpt>
      <trkpt lat="37.421450" lon="-119.632810">
        <ele>1244.156</ele>
        <time>2018-12-28T10:57:55Z</time>
      </trkpt>
      <trkpt lat="37.421440" lon="-119.632730">
        <ele>1243.046</ele>
        <time>2018-12-28T10:58:15Z</time>
      </trkpt>
      <trkpt lat="37.421420" lon="-119.632660">
        <ele>1242.272</ele>
        <time>2018-12-28T10:58:35Z</time>
      </trkpt>
      <trkpt lat="37.421390" lon="-119.632580">
        <ele>1241.371</ele>
        <time>2018-12-28T10:58:55Z</time>
      </trkpt>
      <trkpt lat="37.421360" lon="-119.632500">
        <ele>1240.525</ele>
        <time>2018-12-28T10:59:15Z</time>
      </trkpt>
      <trkpt lat="37.421330" lon="-119.632440">
        <ele>1240.126</ele>
        <time>2018-12-28T10:59:35Z</time>
      </trkpt>
      <trkpt lat="37.421290" lon="-119.632370">
        <ele>1239.708</ele>
        <time>2018-12-28T10:59:55Z</time>
      </trkpt>
      <trkpt lat="37.421250" lon="-119.632280">
        <ele>1239.008</ele>
        <time>2018-12-28T11:00:15Z</time>
      </trkpt>
      <trkpt lat="37.421210" lon="-119.632220">
        <ele>1239.075</ele>
        <time>2018-12-28T11:00:35Z</time>
      </trkpt>
      <trkpt lat="37.421170" lon="-119.632140">
        <ele>1238.653</ele>
        <time>2018-12-28T11:00:55Z</time>
      </trkpt>
      <trkpt lat="37.421060" lon="-119.632020">
        <ele>1238.888</ele>
        <time>2018-12-28T11:01:15Z</time>
      </trkpt>
      <trkpt lat="37.420990" lon="-119.631940">
        <ele>1238.898</ele>
        <time>2018-12-28T11:01:35Z</time>
      </trkpt>
      <trkpt lat="37.420930" lon="-119.631870">
        <ele>1238.962</ele>
        <time>2018-12-28T11:01:55Z</time>
      </trkpt>
      <trkpt lat="37.420890" lon="-119.631800">
        <ele>1238.432</ele>
        <time>2018-12-28T11:02:15Z</time>
      </trkpt>
      <trkpt lat="37.420830" lon="-119.631730">
        <ele>1238.238</ele>
        <time>2018-12-28T11:02:35Z</time>
      </trkpt>
      <trkpt lat="37.420780" lon="-119.631630">
        <ele>1237.157</ele>
        <time>2018-12-28T11:02:55Z</time>
      </trkpt>
      <trkpt lat="37.420730" lon="-119.631540">
        <ele>1236.588</ele>
        <time>2018-12-28T11:03:15Z</time>
      </trkpt>
      <trkpt lat="37.420710" lon="-119.631500">
        <ele>1236.624</ele>
        <time>2018-12-28T11:03:35Z</time>
      </trkpt>
      <trkpt lat="37.420690" lon="-119.631440">
        <ele>1236.626</ele>
        <time>2018-12-28T11:03:55Z</time>
      </trkpt>
      <trkpt lat="37.420670" lon="-119.631330">
        <ele>1236.008</ele>
        <time>2018-12-28T11:04:15Z</time>
      </trkpt>
      <trkpt lat="37.420660" lon="-119.631210">
        <ele>1235.381</ele>
        <time>2018-12-28T11:04:35Z</time>
      </trkpt>
      <trkpt lat="37.420650" lon="-119.631050">
        <ele>1235.189</ele>
        <time>2018-12-28T11:04:55Z</time>
      </trkpt>
      <trkpt lat="37.420650" lon="-119.630700">
        <ele>1234.194</ele>
        <time>2018-12-28T11:05:15Z</time>
      </trkpt>
      <trkpt lat="37.420640" lon="-119.630540">
        <ele>1233.514</ele>
        <time>2018-12-28T11:05:35Z</time>
      </trkpt>
      <trkpt lat="37.420630" lon="-119.630440">
        <ele>1233.048</ele>
        <time>2018-12-28T11:05:55Z</time>
      </trkpt>
      <trkpt lat="37.420600" lon="-119.630280">
        <ele>1230.878</ele>
        <time>2018-12-28T11:06:15Z</time>
      </trkpt>
      <trkpt lat="37.420550" lon="-119.630170">
        <ele>1229.454</ele>
        <time>2018-12-28T11:06:35Z</time>
      </trkpt>
      <trkpt lat="37.420520" lon="-119.630080">
        <ele>1228.613</ele>
        <time>2018-12-28T11:06:55Z</time>
      </trkpt>
      <trkpt lat="37.420460" lon="-119.629980">
        <ele>1228.432</ele>
        <time>2018-12-28T11:07:15Z</time>
      </trkpt>
      <trkpt lat="37.420410" lon="-119.629900">
        <ele>1228.392</ele>
        <time>2018-12-28T11:07:35Z</time>
      </trkpt>
      <trkpt lat="37.420370" lon="-119.629860">
        <ele>1228.311</ele>
        <time>2018-12-28T11:07:55Z</time>
      </trkpt>
      <trkpt lat="37.420320" lon="-119.629810">
        <ele>1228.108</ele>
        <time>2018-12-28T11:08:15Z</time>
      </trkpt>
      <trkpt lat="37.420270" lon="-119.629780">
        <ele>1228.276</ele>
        <time>2018-12-28T11:08:35Z</time>
      </trkpt>
      <trkpt lat="37.420180" lon="-119.629720">
        <ele>1228.164</ele>
        <time>2018-12-28T11:08:55Z</time>
      </trkpt>
      <trkpt lat="37.420050" lon="-119.629640">
        <ele>1227.549</ele>
        <time>2018-12-28T11:09:15Z</time>
      </trkpt>
      <trkpt lat="37.419660" lon="-119.629440">
        <ele>1225.019</ele>
        <time>2018-12-28T11:09:35Z</time>
      </trkpt>
      <trkpt lat="37.418830" lon="-119.629060">
        <ele>1215.963</ele>
        <time>2018-12-28T11:09:55Z</time>
      </trkpt>
      <trkpt lat="37.417710" lon="-119.628420">
        <ele>1202.413</ele>
        <time>2018-12-28T11:10:15Z</time>
      </trkpt>
      <trkpt lat="37.417680" lon="-119.628390">
        <ele>1202.089</ele>
        <time>2018-12-28T11:10:35Z</time>
      </trkpt>
      <trkpt lat="37.417650" lon="-119.628370">
        <ele>1201.798</ele>
        <time>2018-12-28T11:10:55Z</time>
      </trkpt>
      <trkpt lat="37.417620" lon="-119.628340">
        <ele>1201.844</ele>
        <time>2018-12-28T11:11:15Z</time>
      </trkpt>
      <trkpt lat="37.417590" lon="-119.628310">
        <ele>1202.105</ele>
        <time>2018-12-28T11:11:35Z</time>
      </trkpt>
      <trkpt lat="37.417530" lon="-119.628230">
        <ele>1202.415</ele>
        <time>2018-12-28T11:11:55Z</time>
      </trkpt>
      <trkpt lat="37.417440" lon="-119.628100">
        <ele>1202.708</ele>
        <time>2018-12-28T11:12:15Z</time>
      </trkpt>
      <trkpt lat="37.417410" lon="-119.628020">
        <ele>1202.437</ele>
        <time>2018-12-28T11:12:35Z</time>
      </trkpt>
      <trkpt lat="37.417260" lon="-119.627660">
        <ele>1201.845</ele>
        <time>2018-12-28T11:12:55Z</time>
      </trkpt>
      <trkpt lat="37.417200" lon="-119.627510">
        <ele>1201.610</ele>
        <time>2018-12-28T11:13:15Z</time>
      </trkpt>
      <trkpt lat="37.417130" lon="-119.627330">
        <ele>1200.930</ele>
        <time>2018-12-28T11:13:35Z</time>
      </trkpt>
      <trkpt lat="37.417040" lon="-119.627180">
        <ele>1200.354</ele>
        <time>2018-12-28T11:13:55Z</time>
      </trkpt>
      <trkpt lat="37.417000" lon="-119.627120">
        <ele>1200.024</ele>
        <time>2018-12-28T11:14:15Z</time>
      </trkpt>
      <trkpt lat="37.416910" lon="-119.627010">
        <ele>1199.450</ele>
        <time>2018-12-28T11:14:35Z</time>
      </trkpt>
      <trkpt lat="37.416850" lon="-119.626930">
        <ele>1198.729</ele>
        <time>2018-12-28T11:14:55Z</time>
      </trkpt>
      <trkpt lat="37.416780" lon="-119.626870">
        <ele>1198.019</ele>
        <time>2018-12-28T11:15:15Z</time>
      </trkpt>
      <trkpt lat="37.416620" lon="-119.626750">
        <ele>1194.409</ele>
        <time>2018-12-28T11:15:35Z</time>
      </trkpt>
      <trkpt lat="37.416560" lon="-119.626710">
        <ele>1193.419</ele>
        <time>2018-12-28T11:15:55Z</time>
      </trkpt>
      <trkpt lat="37.416460" lon="-119.626670">
        <ele>1192.508</ele>
        <time>2018-12-28T11:16:15Z</time>
      </trkpt>
      <trkpt lat="37.416370" lon="-119.626630">
        <ele>1191.624</ele>
        <time>2018-12-28T11:16:35Z</time>
      </trkpt>
      <trkpt lat="37.416310" lon="-119.626610">
        <ele>1190.972</ele>
        <time>2018-12-28T11:16:55Z</time>
      </trkpt>
      <trkpt lat="37.416250" lon="-119.626580">
        <ele>1189.977</ele>
        <time>2018-12-28T11:17:15Z</time>
      </trkpt>
      <trkpt lat="37.416190" lon="-119.626570">
        <ele>1189.817</ele>
        <time>2018-12-28T11:17:35Z</time>
      </trkpt>
      <trkpt lat="37.416120" lon="-119.626560">
        <ele>1189.771</ele>
        <time>2018-12-28T11:17:55Z</time>
      </trkpt>
      <trkpt lat="37.416060" lon="-119.626550">
        <ele>1189.731</ele>
        <time>2018-12-28T11:18:15Z</time>
      </trkpt>
      <trkpt lat="37.415990" lon="-119.626550">
        <ele>1189.927</ele>
        <time>2018-12-28T11:18:35Z</time>
      </trkpt>
      <trkpt lat="37.415930" lon="-119.626550">
        <ele>1189.776</ele>
        <time>2018-12-28T11:18:55Z</time>
      </trkpt>
      <trkpt lat="37.415810" lon="-119.626560">
        <ele>1189.367</ele>
        <time>2018-12-28T11:19:15Z</time>
      </trkpt>
      <trkpt lat="37.415710" lon="-119.626580">
        <ele>1189.281</ele>
        <time>2018-12-28T11:19:35Z</time>
      </trkpt>
      <trkpt lat="37.415600" lon="-119.626610">
        <ele>1188.919</ele>
        <time>2018-12-28T11:19:55Z</time>
      </trkpt>
      <trkpt lat="37.415480" lon="-119.626650">
        <ele>1188.608</ele>
        <time>2018-12-28T11:20:15Z</time>
      </trkpt>
      <trkpt lat="37.415380" lon="-119.626700">
        <ele>1188.389</ele>
        <time>2018-12-28T11:20:35Z</time>
      </trkpt>
      <trkpt lat="37.415280" lon="-119.626750">
        <ele>1187.547</ele>
        <time>2018-12-28T11:20:55Z</time>
      </trkpt>
      <trkpt lat="37.415200" lon="-119.626790">
        <ele>1187.142</ele>
        <time>2018-12-28T11:21:15Z</time>
      </trkpt>
      <trkpt lat="37.415100" lon="-119.626870">
        <ele>1187.042</ele>
        <time>2018-12-28T11:21:35Z</time>
      </trkpt>
      <trkpt lat="37.415000" lon="-119.626940">
        <ele>1186.386</ele>
        <time>2018-12-28T11:21:55Z</time>
      </trkpt>
      <trkpt lat="37.414790" lon="-119.627120">
        <ele>1185.946</ele>
        <time>2018-12-28T11:22:15Z</time>
      </trkpt>
      <trkpt lat="37.414610" lon="-119.627270">
        <ele>1183.652</ele>
        <time>2018-12-28T11:22:35Z</time>
      </trkpt>
      <trkpt lat="37.414480" lon="-119.627380">
        <ele>1181.241</ele>
        <time>2018-12-28T11:22:55Z</time>
      </trkpt>
      <trkpt lat="37.414380" lon="-119.627450">
        <ele>1179.397</ele>
        <time>2018-12-28T11:23:15Z</time>
      </trkpt>
      <trkpt lat="37.414270" lon="-119.627530">
        <ele>1177.923</ele>
        <time>2018-12-28T11:23:35Z</time>
      </trkpt>
      <trkpt lat="37.414170" lon="-119.627590">
        <ele>1177.125</ele>
        <time>2018-12-28T11:23:55Z</time>
      </trkpt>
      <trkpt lat="37.414080" lon="-119.627640">
        <ele>1176.908</ele>
        <time>2018-12-28T11:24:15Z</time>
      </trkpt>
      <trkpt lat="37.414000" lon="-119.627680">
        <ele>1177.252</ele>
        <time>2018-12-28T11:24:35Z</time>
      </trkpt>
      <trkpt lat="37.413880" lon="-119.627730">
        <ele>1177.480</ele>
        <time>2018-12-28T11:24:55Z</time>
      </trkpt>
      <trkpt lat="37.413790" lon="-119.627760">
        <ele>1177.385</ele>
        <time>2018-12-28T11:25:15Z</time>
      </trkpt>
      <trkpt lat="37.413700" lon="-119.627770">
        <ele>1176.485</ele>
        <time>2018-12-28T11:25:35Z</time>
      </trkpt>
      <trkpt lat="37.413610" lon="-119.627790">
        <ele>1175.579</ele>
        <time>2018-12-28T11:25:55Z</time>
      </trkpt>
      <trkpt lat="37.413470" lon="-119.627820">
        <ele>1173.739</ele>
        <time>2018-12-28T11:26:15Z</time>
      </trkpt>
      <trkpt lat="37.413390" lon="-119.627830">
        <ele>1172.165</ele>
        <time>2018-12-28T11:26:35Z</time>
      </trkpt>
      <trkpt lat="37.413320" lon="-119.627840">
        <ele>1170.844</ele>
        <time>2018-12-28T11:26:55Z</time>
      </trkpt>
      <trkpt lat="37.413170" lon="-119.627870">
        <ele>1168.513</ele>
        <time>2018-12-28T11:27:15Z</time>
      </trkpt>
      <trkpt lat="37.412780" lon="-119.627910">
        <ele>1166.643</ele>
        <time>2018-12-28T11:27:35Z</time>
      </trkpt>
      <trkpt lat="37.412690" lon="-119.627920">
        <ele>1166.007</ele>
        <time>2018-12-28T11:27:55Z</time>
      </trkpt>
      <trkpt lat="37.412580" lon="-119.627940">
        <ele>1165.208</ele>
        <time>2018-12-28T11:28:15Z</time>
      </trkpt>
      <trkpt lat="37.412480" lon="-119.627960">
        <ele>1164.234</ele>
        <time>2018-12-28T11:28:35Z</time>
      </trkpt>
      <trkpt lat="37.412370" lon="-119.628010">
        <ele>1163.982</ele>
        <time>2018-12-28T11:28:55Z</time>
      </trkpt>
      <trkpt lat="37.412320" lon="-119.628030">
        <ele>1163.527</ele>
        <time>2018-12-28T11:29:15Z</time>
      </trkpt>
      <trkpt lat="37.412270" lon="-119.628050">
        <ele>1163.187</ele>
        <time>2018-12-28T11:29:35Z</time>
      </trkpt>
      <trkpt lat="37.412230" lon="-119.628070">
        <ele>1162.971</ele>
        <time>2018-12-28T11:29:55Z</time>
      </trkpt>
      <trkpt lat="37.412180" lon="-119.628100">
        <ele>1162.691</ele>
        <time>2018-12-28T11:30:15Z</time>
      </trkpt>
      <trkpt lat="37.412130" lon="-119.628130">
        <ele>1162.387</ele>
        <time>2018-12-28T11:30:35Z</time>
      </trkpt>
      <trkpt lat="37.412060" lon="-119.628170">
        <ele>1161.676</ele>
        <time>2018-12-28T11:30:55Z</time>
      </trkpt>
      <trkpt lat="37.411980" lon="-119.628230">
        <ele>1160.455</ele>
        <time>2018-12-28T11:31:15Z</time>
      </trkpt>
      <trkpt lat="37.411910" lon="-119.628290">
        <ele>1159.107</ele>
        <time>2018-12-28T11:31:35Z</time>
      </trkpt>
      <trkpt lat="37.411850" lon="-119.628360">
        <ele>1158.017</ele>
        <time>2018-12-28T11:31:55Z</time>
      </trkpt>
      <trkpt lat="37.411810" lon="-119.628390">
        <ele>1157.008</ele>
        <time>2018-12-28T11:32:15Z</time>
      </trkpt>
      <trkpt lat="37.411780" lon="-119.628420">
        <ele>1156.738</ele>
        <time>2018-12-28T11:32:35Z</time>
      </trkpt>
      <trkpt lat="37.411730" lon="-119.628460">
        <ele>1156.576</ele>
        <time>2018-12-28T11:32:55Z</time>
      </trkpt>
      <trkpt lat="37.411680" lon="-119.628490">
        <ele>1156.551</ele>
        <time>2018-12-28T11:33:15Z</time>
      </trkpt>
      <trkpt lat="37.411620" lon="-119.628520">
        <ele>1156.521</ele>
        <time>2018-12-28T11:33:35Z</time>
      </trkpt>
      <trkpt lat="37.411560" lon="-119.628550">
        <ele>1156.695</ele>
        <time>2018-12-28T11:33:55Z</time>
      </trkpt>
      <trkpt lat="37.411510" lon="-119.628570">
        <ele>1156.565</ele>
        <time>2018-12-28T11:34:15Z</time>
      </trkpt>
      <trkpt lat="37.411450" lon="-119.628590">
        <ele>1156.391</ele>
        <time>2018-12-28T11:34:35Z</time>
      </trkpt>
      <trkpt lat="37.411390" lon="-119.628600">
        <ele>1155.990</ele>
        <time>2018-12-28T11:34:55Z</time>
      </trkpt>
      <trkpt lat="37.411330" lon="-119.628610">
        <ele>1155.452</ele>
        <time>2018-12-28T11:35:15Z</time>
      </trkpt>
      <trkpt lat="37.411260" lon="-119.628620">
        <ele>1154.853</ele>
        <time>2018-12-28T11:35:35Z</time>
      </trkpt>
      <trkpt lat="37.411210" lon="-119.628620">
        <ele>1154.108</ele>
        <time>2018-12-28T11:35:55Z</time>
      </trkpt>
      <trkpt lat="37.411170" lon="-119.628630">
        <ele>1153.808</ele>
        <time>2018-12-28T11:36:15Z</time>
      </trkpt>
      <trkpt lat="37.411120" lon="-119.628630">
        <ele>1153.148</ele>
        <time>2018-12-28T11:36:35Z</time>
      </trkpt>
      <trkpt lat="37.411070" lon="-119.628640">
        <ele>1152.666</ele>
        <time>2018-12-28T11:36:55Z</time>
      </trkpt>
      <trkpt lat="37.411030" lon="-119.628660">
        <ele>1152.411</ele>
        <time>2018-12-28T11:37:15Z</time>
      </trkpt>
      <trkpt lat="37.410980" lon="-119.628670">
        <ele>1151.991</ele>
        <time>2018-12-28T11:37:35Z</time>
      </trkpt>
      <trkpt lat="37.410930" lon="-119.628690">
        <ele>1151.635</ele>
        <time>2018-12-28T11:37:55Z</time>
      </trkpt>
      <trkpt lat="37.410880" lon="-119.628710">
        <ele>1151.375</ele>
        <time>2018-12-28T11:38:15Z</time>
      </trkpt>
      <trkpt lat="37.410800" lon="-119.628740">
        <ele>1151.091</ele>
        <time>2018-12-28T11:38:35Z</time>
      </trkpt>
      <trkpt lat="37.410720" lon="-119.628780">
        <ele>1151.030</ele>
        <time>2018-12-28T11:38:55Z</time>
      </trkpt>
      <trkpt lat="37.409940" lon="-119.629240">
        <ele>1149.397</ele>
        <time>2018-12-28T11:39:15Z</time>
      </trkpt>
      <trkpt lat="37.409220" lon="-119.629730">
        <ele>1145.923</ele>
        <time>2018-12-28T11:39:35Z</time>
      </trkpt>
      <trkpt lat="37.409040" lon="-119.629850">
        <ele>1142.325</ele>
        <time>2018-12-28T11:39:55Z</time>
      </trkpt>
      <trkpt lat="37.408960" lon="-119.629890">
        <ele>1141.908</ele>
        <time>2018-12-28T11:40:15Z</time>
      </trkpt>
      <trkpt lat="37.408910" lon="-119.629920">
        <ele>1142.062</ele>
        <time>2018-12-28T11:40:35Z</time>
      </trkpt>
      <trkpt lat="37.408850" lon="-119.629950">
        <ele>1142.160</ele>
        <time>2018-12-28T11:40:55Z</time>
      </trkpt>
      <trkpt lat="37.408780" lon="-119.629970">
        <ele>1141.995</ele>
        <time>2018-12-28T11:41:15Z</time>
      </trkpt>
      <trkpt lat="37.408720" lon="-119.629980">
        <ele>1141.835</ele>
        <time>2018-12-28T11:41:35Z</time>
      </trkpt>
      <trkpt lat="37.408660" lon="-119.629990">
        <ele>1141.819</ele>
        <time>2018-12-28T11:41:55Z</time>
      </trkpt>
      <trkpt lat="37.408600" lon="-119.630000">
        <ele>1141.859</ele>
        <time>2018-12-28T11:42:15Z</time>
      </trkpt>
      <trkpt lat="37.408540" lon="-119.630000">
        <ele>1141.555</ele>
        <time>2018-12-28T11:42:35Z</time>
      </trkpt>
      <trkpt lat="37.408450" lon="-119.630000">
        <ele>1141.084</ele>
        <time>2018-12-28T11:42:55Z</time>
      </trkpt>
      <trkpt lat="37.408330" lon="-119.630000">
        <ele>1140.618</ele>
        <time>2018-12-28T11:43:15Z</time>
      </trkpt>
      <trkpt lat="37.408180" lon="-119.629990">
        <ele>1139.798</ele>
        <time>2018-12-28T11:43:35Z</time>
      </trkpt>
      <trkpt lat="37.407840" lon="-119.629930">
        <ele>1136.317</ele>
        <time>2018-12-28T11:43:55Z</time>
      </trkpt>
      <trkpt lat="37.406880" lon="-119.629770">
        <ele>1121.608</ele>
        <time>2018-12-28T11:44:15Z</time>
      </trkpt>
      <trkpt lat="37.406240" lon="-119.629650">
        <ele>1120.664</ele>
        <time>2018-12-28T11:44:35Z</time>
      </trkpt>
      <trkpt lat="37.405560" lon="-119.629530">
        <ele>1118.632</ele>
        <time>2018-12-28T11:44:55Z</time>
      </trkpt>
      <trkpt lat="37.405190" lon="-119.629500">
        <ele>1117.857</ele>
        <time>2018-12-28T11:45:15Z</time>
      </trkpt>
      <trkpt lat="37.404820" lon="-119.629480">
        <ele>1115.287</ele>
        <time>2018-12-28T11:45:35Z</time>
      </trkpt>
      <trkpt lat="37.404620" lon="-119.629480">
        <ele>1113.821</ele>
        <time>2018-12-28T11:45:55Z</time>
      </trkpt>
      <trkpt lat="37.404420" lon="-119.629490">
        <ele>1110.271</ele>
        <time>2018-12-28T11:46:15Z</time>
      </trkpt>
      <trkpt lat="37.404300" lon="-119.629510">
        <ele>1107.937</ele>
        <time>2018-12-28T11:46:35Z</time>
      </trkpt>
      <trkpt lat="37.404200" lon="-119.629530">
        <ele>1107.286</ele>
        <time>2018-12-28T11:46:55Z</time>
      </trkpt>
      <trkpt lat="37.404070" lon="-119.629570">
        <ele>1106.685</ele>
        <time>2018-12-28T11:47:15Z</time>
      </trkpt>
      <trkpt lat="37.403920" lon="-119.629640">
        <ele>1106.389</ele>
        <time>2018-12-28T11:47:35Z</time>
      </trkpt>
      <trkpt lat="37.403480" lon="-119.629880">
        <ele>1103.617</ele>
        <time>2018-12-28T11:47:55Z</time>
      </trkpt>
      <trkpt lat="37.402670" lon="-119.630410">
        <ele>1100.408</ele>
        <time>2018-12-28T11:48:15Z</time>
      </trkpt>
      <trkpt lat="37.402060" lon="-119.630820">
        <ele>1092.761</ele>
        <time>2018-12-28T11:48:35Z</time>
      </trkpt>
      <trkpt lat="37.401590" lon="-119.631080">
        <ele>1091.429</ele>
        <time>2018-12-28T11:48:55Z</time>
      </trkpt>
      <trkpt lat="37.401500" lon="-119.631090">
        <ele>1090.454</ele>
        <time>2018-12-28T11:49:15Z</time>
      </trkpt>
      <trkpt lat="37.401420" lon="-119.631090">
        <ele>1090.074</ele>
        <time>2018-12-28T11:49:35Z</time>
      </trkpt>
      <trkpt lat="37.401280" lon="-119.631090">
        <ele>1089.388</ele>
        <time>2018-12-28T11:49:55Z</time>
      </trkpt>
      <trkpt lat="37.401160" lon="-119.631070">
        <ele>1087.958</ele>
        <time>2018-12-28T11:50:15Z</time>
      </trkpt>
      <trkpt lat="37.401060" lon="-119.631050">
        <ele>1086.644</ele>
        <time>2018-12-28T11:50:35Z</time>
      </trkpt>
      <trkpt lat="37.400950" lon="-119.631020">
        <ele>1085.363</ele>
        <time>2018-12-28T11:50:55Z</time>
      </trkpt>
      <trkpt lat="37.400870" lon="-119.631010">
        <ele>1084.674</ele>
        <time>2018-12-28T11:51:15Z</time>
      </trkpt>
      <trkpt lat="37.400790" lon="-119.631000">
        <ele>1083.956</ele>
        <time>2018-12-28T11:51:35Z</time>
      </trkpt>
      <trkpt lat="37.400730" lon="-119.631000">
        <ele>1083.521</ele>
        <time>2018-12-28T11:51:55Z</time>
      </trkpt>
      <trkpt lat="37.400680" lon="-119.631000">
        <ele>1083.208</ele>
        <time>2018-12-28T11:52:15Z</time>
      </trkpt>
      <trkpt lat="37.400640" lon="-119.631000">
        <ele>1083.080</ele>
        <time>2018-12-28T11:52:35Z</time>
      </trkpt>
      <trkpt lat="37.400570" lon="-119.631010">
        <ele>1082.948</ele>
        <time>2018-12-28T11:52:55Z</time>
      </trkpt>
      <trkpt lat="37.400530" lon="-119.631020">
        <ele>1082.883</ele>
        <time>2018-12-28T11:53:15Z</time>
      </trkpt>
      <trkpt lat="37.400360" lon="-119.631100">
        <ele>1082.753</ele>
        <time>2018-12-28T11:53:35Z</time>
      </trkpt>
      <trkpt lat="37.400220" lon="-119.631170">
        <ele>1082.367</ele>
        <time>2018-12-28T11:53:55Z</time>
      </trkpt>
      <trkpt lat="37.400090" lon="-119.631250">
        <ele>1082.147</ele>
        <time>2018-12-28T11:54:15Z</time>
      </trkpt>
      <trkpt lat="37.399910" lon="-119.631370">
        <ele>1081.713</ele>
        <time>2018-12-28T11:54:35Z</time>
      </trkpt>
      <trkpt lat="37.399700" lon="-119.631520">
        <ele>1080.092</ele>
        <time>2018-12-28T11:54:55Z</time>
      </trkpt>
      <trkpt lat="37.398940" lon="-119.632090">
        <ele>1077.991</ele>
        <time>2018-12-28T11:55:15Z</time>
      </trkpt>
      <trkpt lat="37.398650" lon="-119.632300">
        <ele>1075.581</ele>
        <time>2018-12-28T11:55:35Z</time>
      </trkpt>
      <trkpt lat="37.398220" lon="-119.632620">
        <ele>1070.919</ele>
        <time>2018-12-28T11:55:55Z</time>
      </trkpt>
      <trkpt lat="37.397920" lon="-119.632800">
        <ele>1070.208</ele>
        <time>2018-12-28T11:56:15Z</time>
      </trkpt>
      <trkpt lat="37.397860" lon="-119.632830">
        <ele>1069.992</ele>
        <time>2018-12-28T11:56:35Z</time>
      </trkpt>
      <trkpt lat="37.397800" lon="-119.632850">
        <ele>1069.530</ele>
        <time>2018-12-28T11:56:55Z</time>
      </trkpt>
      <trkpt lat="37.397750" lon="-119.632870">
        <ele>1069.315</ele>
        <time>2018-12-28T11:57:15Z</time>
      </trkpt>
      <trkpt lat="37.397680" lon="-119.632890">
        <ele>1068.855</ele>
        <time>2018-12-28T11:57:35Z</time>
      </trkpt>
      <trkpt lat="37.397610" lon="-119.632900">
        <ele>1068.479</ele>
        <time>2018-12-28T11:57:55Z</time>
      </trkpt>
      <trkpt lat="37.397530" lon="-119.632890">
        <ele>1068.099</ele>
        <time>2018-12-28T11:58:15Z</time>
      </trkpt>
      <trkpt lat="37.397450" lon="-119.632880">
        <ele>1067.645</ele>
        <time>2018-12-28T11:58:35Z</time>
      </trkpt>
      <trkpt lat="37.397380" lon="-119.632860">
        <ele>1066.984</ele>
        <time>2018-12-28T11:58:55Z</time>
      </trkpt>
      <trkpt lat="37.397340" lon="-119.632840">
        <ele>1066.449</ele>
        <time>2018-12-28T11:59:15Z</time>
      </trkpt>
      <trkpt lat="37.397300" lon="-119.632830">
        <ele>1066.302</ele>
        <time>2018-12-28T11:59:35Z</time>
      </trkpt>
      <trkpt lat="37.397230" lon="-119.632790">
        <ele>1065.622</ele>
        <time>2018-12-28T11:59:55Z</time>
      </trkpt>
      <trkpt lat="37.397090" lon="-119.632700">
        <ele>1064.208</ele>
        <time>2018-12-28T12:00:15Z</time>
      </trkpt>
      <trkpt lat="37.396880" lon="-119.632580">
        <ele>1061.587</ele>
        <time>2018-12-28T12:00:35Z</time>
      </trkpt>
      <trkpt lat="37.396780" lon="-119.632520">
        <ele>1060.055</ele>
        <time>2018-12-28T12:00:55Z</time>
      </trkpt>
      <trkpt lat="37.396680" lon="-119.632470">
        <ele>1058.510</ele>
        <time>2018-12-28T12:01:15Z</time>
      </trkpt>
      <trkpt lat="37.396600" lon="-119.632440">
        <ele>1057.560</ele>
        <time>2018-12-28T12:01:35Z</time>
      </trkpt>
      <trkpt lat="37.396520" lon="-119.632410">
        <ele>1056.764</ele>
        <time>2018-12-28T12:01:55Z</time>
      </trkpt>
      <trkpt lat="37.396420" lon="-119.632390">
        <ele>1056.294</ele>
        <time>2018-12-28T12:02:15Z</time>
      </trkpt>
      <trkpt lat="37.396360" lon="-119.632390">
        <ele>1056.220</ele>
        <time>2018-12-28T12:02:35Z</time>
      </trkpt>
      <trkpt lat="37.396280" lon="-119.632390">
        <ele>1056.219</ele>
        <time>2018-12-28T12:02:55Z</time>
      </trkpt>
      <trkpt lat="37.396210" lon="-119.632400">
        <ele>1056.238</ele>
        <time>2018-12-28T12:03:15Z</time>
      </trkpt>
      <trkpt lat="37.396130" lon="-119.632420">
        <ele>1056.070</ele>
        <time>2018-12-28T12:03:35Z</time>
      </trkpt>
      <trkpt lat="37.396050" lon="-119.632450">
        <ele>1056.117</ele>
        <time>2018-12-28T12:03:55Z</time>
      </trkpt>
      <trkpt lat="37.395950" lon="-119.632490">
        <ele>1056.008</ele>
        <time>2018-12-28T12:04:15Z</time>
      </trkpt>
      <trkpt lat="37.395860" lon="-119.632530">
        <ele>1055.836</ele>
        <time>2018-12-28T12:04:35Z</time>
      </trkpt>
      <trkpt lat="37.395780" lon="-119.632580">
        <ele>1055.744</ele>
        <time>2018-12-28T12:04:55Z</time>
      </trkpt>
      <trkpt lat="37.395680" lon="-119.632640">
        <ele>1055.399</ele>
        <time>2018-12-28T12:05:15Z</time>
      </trkpt>
      <trkpt lat="37.395610" lon="-119.632710">
        <ele>1055.279</ele>
        <time>2018-12-28T12:05:35Z</time>
      </trkpt>
      <trkpt lat="37.395550" lon="-119.632780">
        <ele>1055.163</ele>
        <time>2018-12-28T12:05:55Z</time>
      </trkpt>
      <trkpt lat="37.395510" lon="-119.632850">
        <ele>1055.123</ele>
        <time>2018-12-28T12:06:15Z</time>
      </trkpt>
      <trkpt lat="37.395460" lon="-119.632920">
        <ele>1054.819</ele>
        <time>2018-12-28T12:06:35Z</time>
      </trkpt>
      <trkpt lat="37.395340" lon="-119.633160">
        <ele>1053.118</ele>
        <time>2018-12-28T12:06:55Z</time>
      </trkpt>
      <trkpt lat="37.395250" lon="-119.633310">
        <ele>1050.421</ele>
        <time>2018-12-28T12:07:15Z</time>
      </trkpt>
      <trkpt lat="37.395150" lon="-119.633450">
        <ele>1046.841</ele>
        <time>2018-12-28T12:07:35Z</time>
      </trkpt>
      <trkpt lat="37.395070" lon="-119.633540">
        <ele>1045.405</ele>
        <time>2018-12-28T12:07:55Z</time>
      </trkpt>
      <trkpt lat="37.394990" lon="-119.633620">
        <ele>1044.608</ele>
        <time>2018-12-28T12:08:15Z</time>
      </trkpt>
      <trkpt lat="37.394910" lon="-119.633680">
        <ele>1043.925</ele>
        <time>2018-12-28T12:08:35Z</time>
      </trkpt>
      <trkpt lat="37.394820" lon="-119.633750">
        <ele>1043.653</ele>
        <time>2018-12-28T12:08:55Z</time>
      </trkpt>
      <trkpt lat="37.394730" lon="-119.633800">
        <ele>1043.478</ele>
        <time>2018-12-28T12:09:15Z</time>
      </trkpt>
      <trkpt lat="37.394660" lon="-119.633830">
        <ele>1043.228</ele>
        <time>2018-12-28T12:09:35Z</time>
      </trkpt>
      <trkpt lat="37.394570" lon="-119.633860">
        <ele>1042.962</ele>
        <time>2018-12-28T12:09:55Z</time>
      </trkpt>
      <trkpt lat="37.393910" lon="-119.634040">
        <ele>1037.792</ele>
        <time>2018-12-28T12:10:15Z</time>
      </trkpt>
      <trkpt lat="37.393170" lon="-119.634240">
        <ele>1033.028</ele>
        <time>2018-12-28T12:10:35Z</time>
      </trkpt>
      <trkpt lat="37.392770" lon="-119.634350">
        <ele>1033.377</ele>
        <time>2018-12-28T12:10:55Z</time>
      </trkpt>
      <trkpt lat="37.392540" lon="-119.634400">
        <ele>1032.871</ele>
        <time>2018-12-28T12:11:15Z</time>
      </trkpt>
      <trkpt lat="37.392470" lon="-119.634410">
        <ele>1032.441</ele>
        <time>2018-12-28T12:11:35Z</time>
      </trkpt>
      <trkpt lat="37.392390" lon="-119.634420">
        <ele>1031.915</ele>
        <time>2018-12-28T12:11:55Z</time>
      </trkpt>
      <trkpt lat="37.392310" lon="-119.634430">
        <ele>1031.508</ele>
        <time>2018-12-28T12:12:15Z</time>
      </trkpt>
      <trkpt lat="37.392240" lon="-119.634420">
        <ele>1030.730</ele>
        <time>2018-12-28T12:12:35Z</time>
      </trkpt>
      <trkpt lat="37.392180" lon="-119.634420">
        <ele>1030.228</ele>
        <time>2018-12-28T12:12:55Z</time>
      </trkpt>
      <trkpt lat="37.392130" lon="-119.634410">
        <ele>1029.673</ele>
        <time>2018-12-28T12:13:15Z</time>
      </trkpt>
      <trkpt lat="37.391990" lon="-119.634370">
        <ele>1028.373</ele>
        <time>2018-12-28T12:13:35Z</time>
      </trkpt>
      <trkpt lat="37.391790" lon="-119.634320">
        <ele>1027.227</ele>
        <time>2018-12-28T12:13:55Z</time>
      </trkpt>
      <trkpt lat="37.391700" lon="-119.634300">
        <ele>1026.297</ele>
        <time>2018-12-28T12:14:15Z</time>
      </trkpt>
      <trkpt lat="37.391630" lon="-119.634290">
        <ele>1025.463</ele>
        <time>2018-12-28T12:14:35Z</time>
      </trkpt>
      <trkpt lat="37.391520" lon="-119.634280">
        <ele>1024.472</ele>
        <time>2018-12-28T12:14:55Z</time>
      </trkpt>
      <trkpt lat="37.391450" lon="-119.634280">
        <ele>1023.625</ele>
        <time>2018-12-28T12:15:15Z</time>
      </trkpt>
      <trkpt lat="37.391370" lon="-119.634290">
        <ele>1022.826</ele>
        <time>2018-12-28T12:15:35Z</time>
      </trkpt>
      <trkpt lat="37.391300" lon="-119.634300">
        <ele>1022.108</ele>
        <time>2018-12-28T12:15:55Z</time>
      </trkpt>
      <trkpt lat="37.391230" lon="-119.634320">
        <ele>1021.508</ele>
        <time>2018-12-28T12:16:15Z</time>
      </trkpt>
      <trkpt lat="37.391170" lon="-119.634340">
        <ele>1021.145</ele>
        <time>2018-12-28T12:16:35Z</time>
      </trkpt>
      <trkpt lat="37.391120" lon="-119.634370">
        <ele>1020.873</ele>
        <time>2018-12-28T12:16:55Z</time>
      </trkpt>
      <trkpt lat="37.391070" lon="-119.634400">
        <ele>1020.628</ele>
        <time>2018-12-28T12:17:15Z</time>
      </trkpt>
      <trkpt lat="37.391020" lon="-119.634430">
        <ele>1020.448</ele>
        <time>2018-12-28T12:17:35Z</time>
      </trkpt>
      <trkpt lat="37.390930" lon="-119.634490">
        <ele>1019.862</ele>
        <time>2018-12-28T12:17:55Z</time>
      </trkpt>
      <trkpt lat="37.390880" lon="-119.634530">
        <ele>1019.582</ele>
        <time>2018-12-28T12:18:15Z</time>
      </trkpt>
      <trkpt lat="37.390820" lon="-119.634580">
        <ele>1019.178</ele>
        <time>2018-12-28T12:18:35Z</time>
      </trkpt>
      <trkpt lat="37.390750" lon="-119.634650">
        <ele>1018.747</ele>
        <time>2018-12-28T12:18:55Z</time>
      </trkpt>
      <trkpt lat="37.390650" lon="-119.634750">
        <ele>1017.999</ele>
        <time>2018-12-28T12:19:15Z</time>
      </trkpt>
      <trkpt lat="37.390550" lon="-119.634850">
        <ele>1017.007</ele>
        <time>2018-12-28T12:19:35Z</time>
      </trkpt>
      <trkpt lat="37.390500" lon="-119.634890">
        <ele>1016.527</ele>
        <time>2018-12-28T12:19:55Z</time>
      </trkpt>
      <trkpt lat="37.390450" lon="-119.634940">
        <ele>1016.208</ele>
        <time>2018-12-28T12:20:15Z</time>
      </trkpt>
      <trkpt lat="37.390400" lon="-119.634980">
        <ele>1015.932</ele>
        <time>2018-12-28T12:20:35Z</time>
      </trkpt>
      <trkpt lat="37.390330" lon="-119.635020">
        <ele>1015.240</ele>
        <time>2018-12-28T12:20:55Z</time>
      </trkpt>
      <trkpt lat="37.390270" lon="-119.635050">
        <ele>1014.475</ele>
        <time>2018-12-28T12:21:15Z</time>
      </trkpt>
      <trkpt lat="37.390220" lon="-119.635070">
        <ele>1013.715</ele>
        <time>2018-12-28T12:21:35Z</time>
      </trkpt>
      <trkpt lat="37.390170" lon="-119.635070">
        <ele>1012.739</ele>
        <time>2018-12-28T12:21:55Z</time>
      </trkpt>
      <trkpt lat="37.390110" lon="-119.635070">
        <ele>1011.989</ele>
        <time>2018-12-28T12:22:15Z</time>
      </trkpt>
      <trkpt lat="37.390060" lon="-119.635070">
        <ele>1011.515</ele>
        <time>2018-12-28T12:22:35Z</time>
      </trkpt>
      <trkpt lat="37.389960" lon="-119.635070">
        <ele>1010.634</ele>
        <time>2018-12-28T12:22:55Z</time>
      </trkpt>
      <trkpt lat="37.389880" lon="-119.635070">
        <ele>1009.915</ele>
        <time>2018-12-28T12:23:15Z</time>
      </trkpt>
      <trkpt lat="37.389780" lon="-119.635060">
        <ele>1009.765</ele>
        <time>2018-12-28T12:23:35Z</time>
      </trkpt>
      <trkpt lat="37.389670" lon="-119.635050">
        <ele>1009.711</ele>
        <time>2018-12-28T12:23:55Z</time>
      </trkpt>
      <trkpt lat="37.389550" lon="-119.635030">
        <ele>1009.608</ele>
        <time>2018-12-28T12:24:15Z</time>
      </trkpt>
      <trkpt lat="37.389360" lon="-119.635000">
        <ele>1009.444</ele>
        <time>2018-12-28T12:24:35Z</time>
      </trkpt>
      <trkpt lat="37.389030" lon="-119.634940">
        <ele>1007.452</ele>
        <time>2018-12-28T12:24:55Z</time>
      </trkpt>
      <trkpt lat="37.388940" lon="-119.634910">
        <ele>1006.117</ele>
        <time>2018-12-28T12:25:15Z</time>
      </trkpt>
      <trkpt lat="37.388850" lon="-119.634880">
        <ele>1004.857</ele>
        <time>2018-12-28T12:25:35Z</time>
      </trkpt>
      <trkpt lat="37.388770" lon="-119.634850">
        <ele>1003.631</ele>
        <time>2018-12-28T12:25:55Z</time>
      </trkpt>
      <trkpt lat="37.388660" lon="-119.634780">
        <ele>1001.471</ele>
        <time>2018-12-28T12:26:15Z</time>
      </trkpt>
      <trkpt lat="37.388510" lon="-119.634680">
        <ele>998.677</ele>
        <time>2018-12-28T12:26:35Z</time>
      </trkpt>
      <trkpt lat="37.388410" lon="-119.634600">
        <ele>997.616</ele>
        <time>2018-12-28T12:26:55Z</time>
      </trkpt>
      <trkpt lat="37.388320" lon="-119.634510">
        <ele>996.659</ele>
        <time>2018-12-28T12:27:15Z</time>
      </trkpt>
      <trkpt lat="37.388260" lon="-119.634440">
        <ele>995.703</ele>
        <time>2018-12-28T12:27:35Z</time>
      </trkpt>
      <trkpt lat="37.388210" lon="-119.634380">
        <ele>994.823</ele>
        <time>2018-12-28T12:27:55Z</time>
      </trkpt>
      <trkpt lat="37.388160" lon="-119.634310">
        <ele>994.108</ele>
        <time>2018-12-28T12:28:15Z</time>
      </trkpt>
      <trkpt lat="37.388120" lon="-119.634240">
        <ele>993.488</ele>
        <time>2018-12-28T12:28:35Z</time>
      </trkpt>
      <trkpt lat="37.388030" lon="-119.634090">
        <ele>992.366</ele>
        <time>2018-12-28T12:28:55Z</time>
      </trkpt>
      <trkpt lat="37.388000" lon="-119.634010">
        <ele>991.881</ele>
        <time>2018-12-28T12:29:15Z</time>
      </trkpt>
      <trkpt lat="37.387960" lon="-119.633940">
        <ele>992.211</ele>
        <time>2018-12-28T12:29:35Z</time>
      </trkpt>
      <trkpt lat="37.387920" lon="-119.633810">
        <ele>992.675</ele>
        <time>2018-12-28T12:29:55Z</time>
      </trkpt>
      <trkpt lat="37.387860" lon="-119.633610">
        <ele>993.385</ele>
        <time>2018-12-28T12:30:15Z</time>
      </trkpt>
      <trkpt lat="37.387800" lon="-119.633440">
        <ele>993.951</ele>
        <time>2018-12-28T12:30:35Z</time>
      </trkpt>
      <trkpt lat="37.387750" lon="-119.633260">
        <ele>993.540</ele>
        <time>2018-12-28T12:30:55Z</time>
      </trkpt>
      <trkpt lat="37.387700" lon="-119.633120">
        <ele>993.372</ele>
        <time>2018-12-28T12:31:15Z</time>
      </trkpt>
      <trkpt lat="37.387650" lon="-119.632950">
        <ele>992.713</ele>
        <time>2018-12-28T12:31:35Z</time>
      </trkpt>
      <trkpt lat="37.387590" lon="-119.632800">
        <ele>992.514</ele>
        <time>2018-12-28T12:31:55Z</time>
      </trkpt>
      <trkpt lat="37.387530" lon="-119.632650">
        <ele>992.008</ele>
        <time>2018-12-28T12:32:15Z</time>
      </trkpt>
      <trkpt lat="37.387470" lon="-119.632540">
        <ele>991.670</ele>
        <time>2018-12-28T12:32:35Z</time>
      </trkpt>
      <trkpt lat="37.387410" lon="-119.632400">
        <ele>991.058</ele>
        <time>2018-12-28T12:32:55Z</time>
      </trkpt>
      <trkpt lat="37.387350" lon="-119.632300">
        <ele>990.783</ele>
        <time>2018-12-28T12:33:15Z</time>
      </trkpt>
      <trkpt lat="37.387290" lon="-119.632210">
        <ele>990.633</ele>
        <time>2018-12-28T12:33:35Z</time>
      </trkpt>
      <trkpt lat="37.387230" lon="-119.632140">
        <ele>990.617</ele>
        <time>2018-12-28T12:33:55Z</time>
      </trkpt>
      <trkpt lat="37.387180" lon="-119.632080">
        <ele>990.517</ele>
        <time>2018-12-28T12:34:15Z</time>
      </trkpt>
      <trkpt lat="37.387080" lon="-119.631960">
        <ele>989.733</ele>
        <time>2018-12-28T12:34:35Z</time>
      </trkpt>
      <trkpt lat="37.387020" lon="-119.631900">
        <ele>988.882</ele>
        <time>2018-12-28T12:34:55Z</time>
      </trkpt>
      <trkpt lat="37.386960" lon="-119.631860">
        <ele>988.073</ele>
        <time>2018-12-28T12:35:15Z</time>
      </trkpt>
      <trkpt lat="37.386900" lon="-119.631810">
        <ele>986.785</ele>
        <time>2018-12-28T12:35:35Z</time>
      </trkpt>
      <trkpt lat="37.386800" lon="-119.631740">
        <ele>985.013</ele>
        <time>2018-12-28T12:35:55Z</time>
      </trkpt>
      <trkpt lat="37.386670" lon="-119.631660">
        <ele>984.808</ele>
        <time>2018-12-28T12:36:15Z</time>
      </trkpt>
      <trkpt lat="37.386510" lon="-119.631580">
        <ele>984.910</ele>
        <time>2018-12-28T12:36:35Z</time>
      </trkpt>
      <trkpt lat="37.386250" lon="-119.631460">
        <ele>984.958</ele>
        <time>2018-12-28T12:36:55Z</time>
      </trkpt>
      <trkpt lat="37.385680" lon="-119.631190">
        <ele>975.073</ele>
        <time>2018-12-28T12:37:15Z</time>
      </trkpt>
      <trkpt lat="37.385230" lon="-119.630980">
        <ele>972.993</ele>
        <time>2018-12-28T12:37:35Z</time>
      </trkpt>
      <trkpt lat="37.384910" lon="-119.630830">
        <ele>971.527</ele>
        <time>2018-12-28T12:37:55Z</time>
      </trkpt>
      <trkpt lat="37.384610" lon="-119.630680">
        <ele>970.017</ele>
        <time>2018-12-28T12:38:15Z</time>
      </trkpt>
      <trkpt lat="37.384460" lon="-119.630610">
        <ele>969.143</ele>
        <time>2018-12-28T12:38:35Z</time>
      </trkpt>
      <trkpt lat="37.384360" lon="-119.630570">
        <ele>968.882</ele>
        <time>2018-12-28T12:38:55Z</time>
      </trkpt>
      <trkpt lat="37.384240" lon="-119.630530">
        <ele>968.156</ele>
        <time>2018-12-28T12:39:15Z</time>
      </trkpt>
      <trkpt lat="37.384160" lon="-119.630510">
        <ele>967.659</ele>
        <time>2018-12-28T12:39:35Z</time>
      </trkpt>
      <trkpt lat="37.384070" lon="-119.630490">
        <ele>967.114</ele>
        <time>2018-12-28T12:39:55Z</time>
      </trkpt>
      <trkpt lat="37.383950" lon="-119.630480">
        <ele>965.508</ele>
        <time>2018-12-28T12:40:15Z</time>
      </trkpt>
      <trkpt lat="37.383840" lon="-119.630470">
        <ele>963.518</ele>
        <time>2018-12-28T12:40:35Z</time>
      </trkpt>
      <trkpt lat="37.383720" lon="-119.630470">
        <ele>961.846</ele>
        <time>2018-12-28T12:40:55Z</time>
      </trkpt>
      <trkpt lat="37.383560" lon="-119.630470">
        <ele>961.281</ele>
        <time>2018-12-28T12:41:15Z</time>
      </trkpt>
      <trkpt lat="37.383440" lon="-119.630470">
        <ele>960.941</ele>
        <time>2018-12-28T12:41:35Z</time>
      </trkpt>
      <trkpt lat="37.383310" lon="-119.630470">
        <ele>961.135</ele>
        <time>2018-12-28T12:41:55Z</time>
      </trkpt>
      <trkpt lat="37.383220" lon="-119.630460">
        <ele>961.035</ele>
        <time>2018-12-28T12:42:15Z</time>
      </trkpt>
      <trkpt lat="37.383120" lon="-119.630440">
        <ele>960.711</ele>
        <time>2018-12-28T12:42:35Z</time>
      </trkpt>
      <trkpt lat="37.383020" lon="-119.630410">
        <ele>960.380</ele>
        <time>2018-12-28T12:42:55Z</time>
      </trkpt>
      <trkpt lat="37.382930" lon="-119.630380">
        <ele>959.818</ele>
        <time>2018-12-28T12:43:15Z</time>
      </trkpt>
      <trkpt lat="37.382800" lon="-119.630310">
        <ele>959.098</ele>
        <time>2018-12-28T12:43:35Z</time>
      </trkpt>
      <trkpt lat="37.382670" lon="-119.630220">
        <ele>958.017</ele>
        <time>2018-12-28T12:43:55Z</time>
      </trkpt>
      <trkpt lat="37.382610" lon="-119.630170">
        <ele>957.708</ele>
        <time>2018-12-28T12:44:15Z</time>
      </trkpt>
      <trkpt lat="37.382510" lon="-119.630080">
        <ele>957.884</ele>
        <time>2018-12-28T12:44:35Z</time>
      </trkpt>
      <trkpt lat="37.382420" lon="-119.629990">
        <ele>957.812</ele>
        <time>2018-12-28T12:44:55Z</time>
      </trkpt>
      <trkpt lat="37.382340" lon="-119.629880">
        <ele>957.267</ele>
        <time>2018-12-28T12:45:15Z</time>
      </trkpt>
      <trkpt lat="37.382250" lon="-119.629760">
        <ele>956.717</ele>
        <time>2018-12-28T12:45:35Z</time>
      </trkpt>
      <trkpt lat="37.381900" lon="-119.629210">
        <ele>951.511</ele>
        <time>2018-12-28T12:45:55Z</time>
      </trkpt>
      <trkpt lat="37.381770" lon="-119.629010">
        <ele>948.661</ele>
        <time>2018-12-28T12:46:15Z</time>
      </trkpt>
      <trkpt lat="37.381660" lon="-119.628850">
        <ele>946.587</ele>
        <time>2018-12-28T12:46:35Z</time>
      </trkpt>
      <trkpt lat="37.381590" lon="-119.628730">
        <ele>945.466</ele>
        <time>2018-12-28T12:46:55Z</time>
      </trkpt>
      <trkpt lat="37.381310" lon="-119.628310">
        <ele>946.391</ele>
        <time>2018-12-28T12:47:15Z</time>
      </trkpt>
      <trkpt lat="37.381210" lon="-119.628140">
        <ele>946.481</ele>
        <time>2018-12-28T12:47:35Z</time>
      </trkpt>
      <trkpt lat="37.381050" lon="-119.627900">
        <ele>945.619</ele>
        <time>2018-12-28T12:47:55Z</time>
      </trkpt>
      <trkpt lat="37.380880" lon="-119.627590">
        <ele>942.608</ele>
        <time>2018-12-28T12:48:15Z</time>
      </trkpt>
      <trkpt lat="37.380780" lon="-119.627440">
        <ele>940.572</ele>
        <time>2018-12-28T12:48:35Z</time>
      </trkpt>
      <trkpt lat="37.380680" lon="-119.627280">
        <ele>938.610</ele>
        <time>2018-12-28T12:48:55Z</time>
      </trkpt>
      <trkpt lat="37.380600" lon="-119.627190">
        <ele>938.325</ele>
        <time>2018-12-28T12:49:15Z</time>
      </trkpt>
      <trkpt lat="37.380520" lon="-119.627090">
        <ele>938.115</ele>
        <time>2018-12-28T12:49:35Z</time>
      </trkpt>
      <trkpt lat="37.380410" lon="-119.626980">
        <ele>938.259</ele>
        <time>2018-12-28T12:49:55Z</time>
      </trkpt>
      <trkpt lat="37.380310" lon="-119.626880">
        <ele>938.659</ele>
        <time>2018-12-28T12:50:15Z</time>
      </trkpt>
      <trkpt lat="37.380180" lon="-119.626770">
        <ele>938.925</ele>
        <time>2018-12-28T12:50:35Z</time>
      </trkpt>
      <trkpt lat="37.380090" lon="-119.626710">
        <ele>939.164</ele>
        <time>2018-12-28T12:50:55Z</time>
      </trkpt>
      <trkpt lat="37.379990" lon="-119.626650">
        <ele>939.057</ele>
        <time>2018-12-28T12:51:15Z</time>
      </trkpt>
      <trkpt lat="37.379870" lon="-119.626590">
        <ele>938.700</ele>
        <time>2018-12-28T12:51:35Z</time>
      </trkpt>
      <trkpt lat="37.379800" lon="-119.626550">
        <ele>938.020</ele>
        <time>2018-12-28T12:51:55Z</time>
      </trkpt>
      <trkpt lat="37.379720" lon="-119.626520">
        <ele>937.108</ele>
        <time>2018-12-28T12:52:15Z</time>
      </trkpt>
      <trkpt lat="37.379640" lon="-119.626500">
        <ele>936.188</ele>
        <time>2018-12-28T12:52:35Z</time>
      </trkpt>
      <trkpt lat="37.379500" lon="-119.626470">
        <ele>934.466</ele>
        <time>2018-12-28T12:52:55Z</time>
      </trkpt>
      <trkpt lat="37.379340" lon="-119.626430">
        <ele>932.511</ele>
        <time>2018-12-28T12:53:15Z</time>
      </trkpt>
      <trkpt lat="37.378900" lon="-119.626330">
        <ele>928.231</ele>
        <time>2018-12-28T12:53:35Z</time>
      </trkpt>
      <trkpt lat="37.378750" lon="-119.626300">
        <ele>927.735</ele>
        <time>2018-12-28T12:53:55Z</time>
      </trkpt>
      <trkpt lat="37.378550" lon="-119.626270">
        <ele>928.255</ele>
        <time>2018-12-28T12:54:15Z</time>
      </trkpt>
      <trkpt lat="37.378410" lon="-119.626250">
        <ele>929.091</ele>
        <time>2018-12-28T12:54:35Z</time>
      </trkpt>
      <trkpt lat="37.378270" lon="-119.626240">
        <ele>930.090</ele>
        <time>2018-12-28T12:54:55Z</time>
      </trkpt>
      <trkpt lat="37.378160" lon="-119.626230">
        <ele>930.527</ele>
        <time>2018-12-28T12:55:15Z</time>
      </trkpt>
      <trkpt lat="37.378030" lon="-119.626230">
        <ele>930.468</ele>
        <time>2018-12-28T12:55:35Z</time>
      </trkpt>
      <trkpt lat="37.377810" lon="-119.626220">
        <ele>929.714</ele>
        <time>2018-12-28T12:55:55Z</time>
      </trkpt>
      <trkpt lat="37.377480" lon="-119.626240">
        <ele>929.308</ele>
        <time>2018-12-28T12:56:15Z</time>
      </trkpt>
      <trkpt lat="37.377290" lon="-119.626250">
        <ele>928.995</ele>
        <time>2018-12-28T12:56:35Z</time>
      </trkpt>
      <trkpt lat="37.377140" lon="-119.626270">
        <ele>928.053</ele>
        <time>2018-12-28T12:56:55Z</time>
      </trkpt>
      <trkpt lat="37.377010" lon="-119.626280">
        <ele>927.148</ele>
        <time>2018-12-28T12:57:15Z</time>
      </trkpt>
      <trkpt lat="37.376900" lon="-119.626300">
        <ele>926.498</ele>
        <time>2018-12-28T12:57:35Z</time>
      </trkpt>
      <trkpt lat="37.376810" lon="-119.626320">
        <ele>925.922</ele>
        <time>2018-12-28T12:57:55Z</time>
      </trkpt>
      <trkpt lat="37.376720" lon="-119.626340">
        <ele>925.762</ele>
        <time>2018-12-28T12:58:15Z</time>
      </trkpt>
      <trkpt lat="37.376590" lon="-119.626380">
        <ele>925.688</ele>
        <time>2018-12-28T12:58:35Z</time>
      </trkpt>
      <trkpt lat="37.376430" lon="-119.626430">
        <ele>925.237</ele>
        <time>2018-12-28T12:58:55Z</time>
      </trkpt>
      <trkpt lat="37.376100" lon="-119.626540">
        <ele>923.719</ele>
        <time>2018-12-28T12:59:15Z</time>
      </trkpt>
      <trkpt lat="37.375990" lon="-119.626580">
        <ele>923.009</ele>
        <time>2018-12-28T12:59:35Z</time>
      </trkpt>
      <trkpt lat="37.375910" lon="-119.626610">
        <ele>922.619</ele>
        <time>2018-12-28T12:59:55Z</time>
      </trkpt>
      <trkpt lat="37.375810" lon="-119.626660">
        <ele>922.208</ele>
        <time>2018-12-28T13:00:15Z</time>
      </trkpt>
      <trkpt lat="37.375650" lon="-119.626730">
        <ele>921.624</ele>
        <time>2018-12-28T13:00:35Z</time>
      </trkpt>
      <trkpt lat="37.375460" lon="-119.626830">
        <ele>921.012</ele>
        <time>2018-12-28T13:00:55Z</time>
      </trkpt>
      <trkpt lat="37.375140" lon="-119.627030">
        <ele>921.567</ele>
        <time>2018-12-28T13:01:15Z</time>
      </trkpt>
      <trkpt lat="37.374760" lon="-119.627290">
        <ele>921.527</ele>
        <time>2018-12-28T13:01:35Z</time>
      </trkpt>
      <trkpt lat="37.374040" lon="-119.627890">
        <ele>912.911</ele>
        <time>2018-12-28T13:01:55Z</time>
      </trkpt>
      <trkpt lat="37.373490" lon="-119.628420">
        <ele>907.191</ele>
        <time>2018-12-28T13:02:15Z</time>
      </trkpt>
      <trkpt lat="37.372880" lon="-119.629020">
        <ele>901.137</ele>
        <time>2018-12-28T13:02:35Z</time>
      </trkpt>
      <trkpt lat="37.372850" lon="-119.629070">
        <ele>900.826</ele>
        <time>2018-12-28T13:02:55Z</time>
      </trkpt>
      <trkpt lat="37.372840" lon="-119.629080">
        <ele>900.773</ele>
        <time>2018-12-28T13:03:15Z</time>
      </trkpt>
      <trkpt lat="37.372700" lon="-119.629220">
        <ele>901.085</ele>
        <time>2018-12-28T13:03:35Z</time>
      </trkpt>
      <trkpt lat="37.372670" lon="-119.629250">
        <ele>901.213</ele>
        <time>2018-12-28T13:03:55Z</time>
      </trkpt>
      <trkpt lat="37.372370" lon="-119.629560">
        <ele>904.208</ele>
        <time>2018-12-28T13:04:15Z</time>
      </trkpt>
      <trkpt lat="37.372140" lon="-119.629780">
        <ele>904.370</ele>
        <time>2018-12-28T13:04:35Z</time>
      </trkpt>
      <trkpt lat="37.372080" lon="-119.629850">
        <ele>904.268</ele>
        <time>2018-12-28T13:04:55Z</time>
      </trkpt>
      <trkpt lat="37.372010" lon="-119.629910">
        <ele>904.143</ele>
        <time>2018-12-28T13:05:15Z</time>
      </trkpt>
      <trkpt lat="37.371930" lon="-119.629970">
        <ele>904.033</ele>
        <time>2018-12-28T13:05:35Z</time>
      </trkpt>
      <trkpt lat="37.371840" lon="-119.630020">
        <ele>903.847</ele>
        <time>2018-12-28T13:05:55Z</time>
      </trkpt>
      <trkpt lat="37.371770" lon="-119.630050">
        <ele>903.697</ele>
        <time>2018-12-28T13:06:15Z</time>
      </trkpt>
      <trkpt lat="37.371660" lon="-119.630090">
        <ele>903.173</ele>
        <time>2018-12-28T13:06:35Z</time>
      </trkpt>
      <trkpt lat="37.371590" lon="-119.630110">
        <ele>902.852</ele>
        <time>2018-12-28T13:06:55Z</time>
      </trkpt>
      <trkpt lat="37.371510" lon="-119.630120">
        <ele>902.393</ele>
        <time>2018-12-28T13:07:15Z</time>
      </trkpt>
      <trkpt lat="37.371440" lon="-119.630130">
        <ele>901.765</ele>
        <time>2018-12-28T13:07:35Z</time>
      </trkpt>
      <trkpt lat="37.371370" lon="-119.630120">
        <ele>901.121</ele>
        <time>2018-12-28T13:07:55Z</time>
      </trkpt>
      <trkpt lat="37.371280" lon="-119.630120">
        <ele>900.408</ele>
        <time>2018-12-28T13:08:15Z</time>
      </trkpt>
      <trkpt lat="37.371210" lon="-119.630110">
        <ele>899.972</ele>
        <time>2018-12-28T13:08:35Z</time>
      </trkpt>
      <trkpt lat="37.371130" lon="-119.630090">
        <ele>899.510</ele>
        <time>2018-12-28T13:08:55Z</time>
      </trkpt>
      <trkpt lat="37.370120" lon="-119.629680">
        <ele>891.095</ele>
        <time>2018-12-28T13:09:15Z</time>
      </trkpt>
      <trkpt lat="37.370120" lon="-119.629670">
        <ele>890.995</ele>
        <time>2018-12-28T13:09:35Z</time>
      </trkpt>
      <trkpt lat="37.370090" lon="-119.629640">
        <ele>890.749</ele>
        <time>2018-12-28T13:09:55Z</time>
      </trkpt>
      <trkpt lat="37.369730" lon="-119.629490">
        <ele>888.579</ele>
        <time>2018-12-28T13:10:15Z</time>
      </trkpt>
      <trkpt lat="37.369530" lon="-119.629420">
        <ele>885.885</ele>
        <time>2018-12-28T13:10:35Z</time>
      </trkpt>
      <trkpt lat="37.369350" lon="-119.629360">
        <ele>882.944</ele>
        <time>2018-12-28T13:10:55Z</time>
      </trkpt>
      <trkpt lat="37.369230" lon="-119.629330">
        <ele>881.746</ele>
        <time>2018-12-28T13:11:15Z</time>
      </trkpt>
      <trkpt lat="37.369090" lon="-119.629300">
        <ele>880.988</ele>
        <time>2018-12-28T13:11:35Z</time>
      </trkpt>
      <trkpt lat="37.368970" lon="-119.629290">
        <ele>880.516</ele>
        <time>2018-12-28T13:11:55Z</time>
      </trkpt>
      <trkpt lat="37.368860" lon="-119.629300">
        <ele>880.208</ele>
        <time>2018-12-28T13:12:15Z</time>
      </trkpt>
      <trkpt lat="37.368770" lon="-119.629310">
        <ele>879.977</ele>
        <time>2018-12-28T13:12:35Z</time>
      </trkpt>
      <trkpt lat="37.368680" lon="-119.629330">
        <ele>879.265</ele>
        <time>2018-12-28T13:12:55Z</time>
      </trkpt>
      <trkpt lat="37.368600" lon="-119.629350">
        <ele>878.450</ele>
        <time>2018-12-28T13:13:15Z</time>
      </trkpt>
      <trkpt lat="37.368470" lon="-119.629400">
        <ele>877.450</ele>
        <time>2018-12-28T13:13:35Z</time>
      </trkpt>
      <trkpt lat="37.368360" lon="-119.629460">
        <ele>877.124</ele>
        <time>2018-12-28T13:13:55Z</time>
      </trkpt>
      <trkpt lat="37.368210" lon="-119.629560">
        <ele>877.024</ele>
        <time>2018-12-28T13:14:15Z</time>
      </trkpt>
      <trkpt lat="37.368100" lon="-119.629630">
        <ele>877.010</ele>
        <time>2018-12-28T13:14:35Z</time>
      </trkpt>
      <trkpt lat="37.367770" lon="-119.629850">
        <ele>876.619</ele>
        <time>2018-12-28T13:14:55Z</time>
      </trkpt>
      <trkpt lat="37.367240" lon="-119.630240">
        <ele>873.649</ele>
        <time>2018-12-28T13:15:15Z</time>
      </trkpt>
      <trkpt lat="37.367000" lon="-119.630420">
        <ele>871.802</ele>
        <time>2018-12-28T13:15:35Z</time>
      </trkpt>
      <trkpt lat="37.366940" lon="-119.630460">
        <ele>871.422</ele>
        <time>2018-12-28T13:15:55Z</time>
      </trkpt>
      <trkpt lat="37.366850" lon="-119.630530">
        <ele>870.708</ele>
        <time>2018-12-28T13:16:15Z</time>
      </trkpt>
      <trkpt lat="37.366750" lon="-119.630590">
        <ele>869.717</ele>
        <time>2018-12-28T13:16:35Z</time>
      </trkpt>
      <trkpt lat="37.366660" lon="-119.630630">
        <ele>868.695</ele>
        <time>2018-12-28T13:16:55Z</time>
      </trkpt>
      <trkpt lat="37.366390" lon="-119.630700">
        <ele>865.640</ele>
        <time>2018-12-28T13:17:15Z</time>
      </trkpt>
      <trkpt lat="37.366380" lon="-119.630710">
        <ele>865.690</ele>
        <time>2018-12-28T13:17:35Z</time>
      </trkpt>
      <trkpt lat="37.366330" lon="-119.630710">
        <ele>865.214</ele>
        <time>2018-12-28T13:17:55Z</time>
      </trkpt>
      <trkpt lat="37.366250" lon="-119.630720">
        <ele>864.754</ele>
        <time>2018-12-28T13:18:15Z</time>
      </trkpt>
      <trkpt lat="37.366180" lon="-119.630720">
        <ele>864.330</ele>
        <time>2018-12-28T13:18:35Z</time>
      </trkpt>
      <trkpt lat="37.366120" lon="-119.630710">
        <ele>863.829</ele>
        <time>2018-12-28T13:18:55Z</time>
      </trkpt>
      <trkpt lat="37.366070" lon="-119.630700">
        <ele>863.343</ele>
        <time>2018-12-28T13:19:15Z</time>
      </trkpt>
      <trkpt lat="37.365990" lon="-119.630690">
        <ele>862.764</ele>
        <time>2018-12-28T13:19:35Z</time>
      </trkpt>
      <trkpt lat="37.365890" lon="-119.630680">
        <ele>861.610</ele>
        <time>2018-12-28T13:19:55Z</time>
      </trkpt>
      <trkpt lat="37.365880" lon="-119.630680">
        <ele>861.508</ele>
        <time>2018-12-28T13:20:15Z</time>
      </trkpt>
      <trkpt lat="37.365790" lon="-119.630660">
        <ele>860.497</ele>
        <time>2018-12-28T13:20:35Z</time>
      </trkpt>
      <trkpt lat="37.365710" lon="-119.630640">
        <ele>859.425</ele>
        <time>2018-12-28T13:20:55Z</time>
      </trkpt>
      <trkpt lat="37.365640" lon="-119.630630">
        <ele>858.980</ele>
        <time>2018-12-28T13:21:15Z</time>
      </trkpt>
      <trkpt lat="37.365560" lon="-119.630620">
        <ele>858.430</ele>
        <time>2018-12-28T13:21:35Z</time>
      </trkpt>
      <trkpt lat="37.365480" lon="-119.630620">
        <ele>858.054</ele>
        <time>2018-12-28T13:21:55Z</time>
      </trkpt>
      <trkpt lat="37.365420" lon="-119.630630">
        <ele>857.744</ele>
        <time>2018-12-28T13:22:15Z</time>
      </trkpt>
      <trkpt lat="37.365360" lon="-119.630640">
        <ele>857.480</ele>
        <time>2018-12-28T13:22:35Z</time>
      </trkpt>
      <trkpt lat="37.365280" lon="-119.630650">
        <ele>857.029</ele>
        <time>2018-12-28T13:22:55Z</time>
      </trkpt>
      <trkpt lat="37.365210" lon="-119.630680">
        <ele>856.769</ele>
        <time>2018-12-28T13:23:15Z</time>
      </trkpt>
      <trkpt lat="37.365110" lon="-119.630720">
        <ele>856.304</ele>
        <time>2018-12-28T13:23:35Z</time>
      </trkpt>
      <trkpt lat="37.365010" lon="-119.630780">
        <ele>856.124</ele>
        <time>2018-12-28T13:23:55Z</time>
      </trkpt>
      <trkpt lat="37.364940" lon="-119.630820">
        <ele>855.908</ele>
        <time>2018-12-28T13:24:15Z</time>
      </trkpt>
      <trkpt lat="37.364880" lon="-119.630880">
        <ele>856.099</ele>
        <time>2018-12-28T13:24:35Z</time>
      </trkpt>
      <trkpt lat="37.364820" lon="-119.630930">
        <ele>855.857</ele>
        <time>2018-12-28T13:24:55Z</time>
      </trkpt>
      <trkpt lat="37.364780" lon="-119.630980">
        <ele>855.742</ele>
        <time>2018-12-28T13:25:15Z</time>
      </trkpt>
      <trkpt lat="37.364720" lon="-119.631050">
        <ele>855.522</ele>
        <time>2018-12-28T13:25:35Z</time>
      </trkpt>
      <trkpt lat="37.364660" lon="-119.631130">
        <ele>855.476</ele>
        <time>2018-12-28T13:25:55Z</time>
      </trkpt>
      <trkpt lat="37.364620" lon="-119.631210">
        <ele>855.586</ele>
        <time>2018-12-28T13:26:15Z</time>
      </trkpt>
      <trkpt lat="37.364580" lon="-119.631280">
        <ele>855.412</ele>
        <time>2018-12-28T13:26:35Z</time>
      </trkpt>
      <trkpt lat="37.364550" lon="-119.631340">
        <ele>855.021</ele>
        <time>2018-12-28T13:26:55Z</time>
      </trkpt>
      <trkpt lat="37.364520" lon="-119.631420">
        <ele>854.862</ele>
        <time>2018-12-28T13:27:15Z</time>
      </trkpt>
      <trkpt lat="37.364500" lon="-119.631490">
        <ele>854.883</ele>
        <time>2018-12-28T13:27:35Z</time>
      </trkpt>
      <trkpt lat="37.364470" lon="-119.631580">
        <ele>854.311</ele>
        <time>2018-12-28T13:27:55Z</time>
      </trkpt>
      <trkpt lat="37.364450" lon="-119.631670">
        <ele>853.908</ele>
        <time>2018-12-28T13:28:15Z</time>
      </trkpt>
      <trkpt lat="37.364430" lon="-119.631750">
        <ele>853.529</ele>
        <time>2018-12-28T13:28:35Z</time>
      </trkpt>
      <trkpt lat="37.364420" lon="-119.631830">
        <ele>853.077</ele>
        <time>2018-12-28T13:28:55Z</time>
      </trkpt>
      <trkpt lat="37.364420" lon="-119.631920">
        <ele>852.262</ele>
        <time>2018-12-28T13:29:15Z</time>
      </trkpt>
      <trkpt lat="37.364410" lon="-119.632030">
        <ele>850.912</ele>
        <time>2018-12-28T13:29:35Z</time>
      </trkpt>
      <trkpt lat="37.364410" lon="-119.632180">
        <ele>849.616</ele>
        <time>2018-12-28T13:29:55Z</time>
      </trkpt>
      <trkpt lat="37.364400" lon="-119.632300">
        <ele>848.256</ele>
        <time>2018-12-28T13:30:15Z</time>
      </trkpt>
      <trkpt lat="37.364400" lon="-119.632390">
        <ele>847.992</ele>
        <time>2018-12-28T13:30:35Z</time>
      </trkpt>
      <trkpt lat="37.364390" lon="-119.632460">
        <ele>848.151</ele>
        <time>2018-12-28T13:30:55Z</time>
      </trkpt>
      <trkpt lat="37.364370" lon="-119.632540">
        <ele>848.148</ele>
        <time>2018-12-28T13:31:15Z</time>
      </trkpt>
      <trkpt lat="37.364360" lon="-119.632600">
        <ele>848.261</ele>
        <time>2018-12-28T13:31:35Z</time>
      </trkpt>
      <trkpt lat="37.364340" lon="-119.632650">
        <ele>848.117</ele>
        <time>2018-12-28T13:31:55Z</time>
      </trkpt>
      <trkpt lat="37.364320" lon="-119.632720">
        <ele>848.408</ele>
        <time>2018-12-28T13:32:15Z</time>
      </trkpt>
      <trkpt lat="37.364290" lon="-119.632800">
        <ele>848.437</ele>
        <time>2018-12-28T13:32:35Z</time>
      </trkpt>
      <trkpt lat="37.364240" lon="-119.632920">
        <ele>848.225</ele>
        <time>2018-12-28T13:32:55Z</time>
      </trkpt>
      <trkpt lat="37.364090" lon="-119.633270">
        <ele>845.910</ele>
        <time>2018-12-28T13:33:15Z</time>
      </trkpt>
      <trkpt lat="37.364060" lon="-119.633330">
        <ele>844.630</ele>
        <time>2018-12-28T13:33:35Z</time>
      </trkpt>
      <trkpt lat="37.364030" lon="-119.633400">
        <ele>843.264</ele>
        <time>2018-12-28T13:33:55Z</time>
      </trkpt>
      <trkpt lat="37.364000" lon="-119.633490">
        <ele>841.564</ele>
        <time>2018-12-28T13:34:15Z</time>
      </trkpt>
      <trkpt lat="37.363960" lon="-119.633590">
        <ele>839.260</ele>
        <time>2018-12-28T13:34:35Z</time>
      </trkpt>
      <trkpt lat="37.363930" lon="-119.633670">
        <ele>837.869</ele>
        <time>2018-12-28T13:34:55Z</time>
      </trkpt>
      <trkpt lat="37.363910" lon="-119.633740">
        <ele>837.065</ele>
        <time>2018-12-28T13:35:15Z</time>
      </trkpt>
      <trkpt lat="37.363890" lon="-119.633840">
        <ele>836.868</ele>
        <time>2018-12-28T13:35:35Z</time>
      </trkpt>
      <trkpt lat="37.363870" lon="-119.633920">
        <ele>836.514</ele>
        <time>2018-12-28T13:35:55Z</time>
      </trkpt>
      <trkpt lat="37.363860" lon="-119.633980">
        <ele>836.508</ele>
        <time>2018-12-28T13:36:15Z</time>
      </trkpt>
      <trkpt lat="37.363850" lon="-119.634040">
        <ele>836.549</ele>
        <time>2018-12-28T13:36:35Z</time>
      </trkpt>
      <trkpt lat="37.363840" lon="-119.634120">
        <ele>836.277</ele>
        <time>2018-12-28T13:36:55Z</time>
      </trkpt>
      <trkpt lat="37.363840" lon="-119.634240">
        <ele>836.442</ele>
        <time>2018-12-28T13:37:15Z</time>
      </trkpt>
      <trkpt lat="37.363840" lon="-119.634360">
        <ele>836.242</ele>
        <time>2018-12-28T13:37:35Z</time>
      </trkpt>
      <trkpt lat="37.363850" lon="-119.634470">
        <ele>836.056</ele>
        <time>2018-12-28T13:37:55Z</time>
      </trkpt>
      <trkpt lat="37.363850" lon="-119.634600">
        <ele>835.526</ele>
        <time>2018-12-28T13:38:15Z</time>
      </trkpt>
      <trkpt lat="37.363860" lon="-119.634700">
        <ele>836.272</ele>
        <time>2018-12-28T13:38:35Z</time>
      </trkpt>
      <trkpt lat="37.363860" lon="-119.634840">
        <ele>836.961</ele>
        <time>2018-12-28T13:38:55Z</time>
      </trkpt>
      <trkpt lat="37.363860" lon="-119.634940">
        <ele>837.371</ele>
        <time>2018-12-28T13:39:15Z</time>
      </trkpt>
      <trkpt lat="37.363850" lon="-119.635040">
        <ele>837.541</ele>
        <time>2018-12-28T13:39:35Z</time>
      </trkpt>
      <trkpt lat="37.363840" lon="-119.635130">
        <ele>837.715</ele>
        <time>2018-12-28T13:39:55Z</time>
      </trkpt>
      <trkpt lat="37.363830" lon="-119.635190">
        <ele>837.408</ele>
        <time>2018-12-28T13:40:15Z</time>
      </trkpt>
      <trkpt lat="37.363810" lon="-119.635280">
        <ele>836.870</ele>
        <time>2018-12-28T13:40:35Z</time>
      </trkpt>
      <trkpt lat="37.363780" lon="-119.635390">
        <ele>836.018</ele>
        <time>2018-12-28T13:40:55Z</time>
      </trkpt>
      <trkpt lat="37.363750" lon="-119.635500">
        <ele>835.563</ele>
        <time>2018-12-28T13:41:15Z</time>
      </trkpt>
      <trkpt lat="37.363720" lon="-119.635590">
        <ele>835.123</ele>
        <time>2018-12-28T13:41:35Z</time>
      </trkpt>
      <trkpt lat="37.363700" lon="-119.635680">
        <ele>835.357</ele>
        <time>2018-12-28T13:41:55Z</time>
      </trkpt>
      <trkpt lat="37.363640" lon="-119.635800">
        <ele>835.057</ele>
        <time>2018-12-28T13:42:15Z</time>
      </trkpt>
      <trkpt lat="37.363550" lon="-119.636000">
        <ele>834.473</ele>
        <time>2018-12-28T13:42:35Z</time>
      </trkpt>
      <trkpt lat="37.363510" lon="-119.636100">
        <ele>832.992</ele>
        <time>2018-12-28T13:42:55Z</time>
      </trkpt>
      <trkpt lat="37.363460" lon="-119.636220">
        <ele>831.135</ele>
        <time>2018-12-28T13:43:15Z</time>
      </trkpt>
      <trkpt lat="37.363430" lon="-119.636310">
        <ele>830.286</ele>
        <time>2018-12-28T13:43:35Z</time>
      </trkpt>
      <trkpt lat="37.363380" lon="-119.636450">
        <ele>828.714</ele>
        <time>2018-12-28T13:43:55Z</time>
      </trkpt>
      <trkpt lat="37.363340" lon="-119.636570">
        <ele>827.508</ele>
        <time>2018-12-28T13:44:15Z</time>
      </trkpt>
      <trkpt lat="37.363310" lon="-119.636680">
        <ele>826.666</ele>
        <time>2018-12-28T13:44:35Z</time>
      </trkpt>
      <trkpt lat="37.363290" lon="-119.636810">
        <ele>825.844</ele>
        <time>2018-12-28T13:44:55Z</time>
      </trkpt>
      <trkpt lat="37.363280" lon="-119.636910">
        <ele>825.649</ele>
        <time>2018-12-28T13:45:15Z</time>
      </trkpt>
      <trkpt lat="37.363260" lon="-119.637010">
        <ele>825.339</ele>
        <time>2018-12-28T13:45:35Z</time>
      </trkpt>
      <trkpt lat="37.363240" lon="-119.637200">
        <ele>824.983</ele>
        <time>2018-12-28T13:45:55Z</time>
      </trkpt>
      <trkpt lat="37.363150" lon="-119.638800">
        <ele>820.453</ele>
        <time>2018-12-28T13:46:15Z</time>
      </trkpt>
      <trkpt lat="37.363140" lon="-119.638880">
        <ele>819.949</ele>
        <time>2018-12-28T13:46:35Z</time>
      </trkpt>
      <trkpt lat="37.363130" lon="-119.638970">
        <ele>819.558</ele>
        <time>2018-12-28T13:46:55Z</time>
      </trkpt>
      <trkpt lat="37.363120" lon="-119.639040">
        <ele>819.046</ele>
        <time>2018-12-28T13:47:15Z</time>
      </trkpt>
      <trkpt lat="37.363110" lon="-119.639080">
        <ele>818.588</ele>
        <time>2018-12-28T13:47:35Z</time>
      </trkpt>
      <trkpt lat="37.363100" lon="-119.639110">
        <ele>818.016</ele>
        <time>2018-12-28T13:47:55Z</time>
      </trkpt>
      <trkpt lat="37.363090" lon="-119.639140">
        <ele>817.608</ele>
        <time>2018-12-28T13:48:15Z</time>
      </trkpt>
      <trkpt lat="37.363070" lon="-119.639180">
        <ele>817.037</ele>
        <time>2018-12-28T13:48:35Z</time>
      </trkpt>
      <trkpt lat="37.363050" lon="-119.639250">
        <ele>816.195</ele>
        <time>2018-12-28T13:48:55Z</time>
      </trkpt>
      <trkpt lat="37.362860" lon="-119.639680">
        <ele>813.380</ele>
        <time>2018-12-28T13:49:15Z</time>
      </trkpt>
      <trkpt lat="37.362770" lon="-119.639870">
        <ele>811.430</ele>
        <time>2018-12-28T13:49:35Z</time>
      </trkpt>
      <trkpt lat="37.362710" lon="-119.640000">
        <ele>810.874</ele>
        <time>2018-12-28T13:49:55Z</time>
      </trkpt>
      <trkpt lat="37.362690" lon="-119.640060">
        <ele>810.934</ele>
        <time>2018-12-28T13:50:15Z</time>
      </trkpt>
      <trkpt lat="37.362660" lon="-119.640140">
        <ele>810.960</ele>
        <time>2018-12-28T13:50:35Z</time>
      </trkpt>
      <trkpt lat="37.362630" lon="-119.640200">
        <ele>810.239</ele>
        <time>2018-12-28T13:50:55Z</time>
      </trkpt>
      <trkpt lat="37.362620" lon="-119.640260">
        <ele>810.259</ele>
        <time>2018-12-28T13:51:15Z</time>
      </trkpt>
      <trkpt lat="37.362590" lon="-119.640330">
        <ele>809.703</ele>
        <time>2018-12-28T13:51:35Z</time>
      </trkpt>
      <trkpt lat="37.362570" lon="-119.640390">
        <ele>809.423</ele>
        <time>2018-12-28T13:51:55Z</time>
      </trkpt>
      <trkpt lat="37.362550" lon="-119.640470">
        <ele>808.908</ele>
        <time>2018-12-28T13:52:15Z</time>
      </trkpt>
      <trkpt lat="37.362540" lon="-119.640540">
        <ele>808.678</ele>
        <time>2018-12-28T13:52:35Z</time>
      </trkpt>
      <trkpt lat="37.362530" lon="-119.640610">
        <ele>808.376</ele>
        <time>2018-12-28T13:52:55Z</time>
      </trkpt>
      <trkpt lat="37.362520" lon="-119.640700">
        <ele>808.011</ele>
        <time>2018-12-28T13:53:15Z</time>
      </trkpt>
      <trkpt lat="37.362510" lon="-119.640810">
        <ele>807.811</ele>
        <time>2018-12-28T13:53:35Z</time>
      </trkpt>
      <trkpt lat="37.362510" lon="-119.640910">
        <ele>807.875</ele>
        <time>2018-12-28T13:53:55Z</time>
      </trkpt>
      <trkpt lat="37.362510" lon="-119.641010">
        <ele>807.935</ele>
        <time>2018-12-28T13:54:15Z</time>
      </trkpt>
      <trkpt lat="37.362520" lon="-119.641110">
        <ele>808.251</ele>
        <time>2018-12-28T13:54:35Z</time>
      </trkpt>
      <trkpt lat="37.362520" lon="-119.641190">
        <ele>808.220</ele>
        <time>2018-12-28T13:54:55Z</time>
      </trkpt>
      <trkpt lat="37.362540" lon="-119.641270">
        <ele>808.665</ele>
        <time>2018-12-28T13:55:15Z</time>
      </trkpt>
      <trkpt lat="37.362580" lon="-119.641420">
        <ele>809.068</ele>
        <time>2018-12-28T13:55:35Z</time>
      </trkpt>
      <trkpt lat="37.362610" lon="-119.641570">
        <ele>809.114</ele>
        <time>2018-12-28T13:55:55Z</time>
      </trkpt>
      <trkpt lat="37.362640" lon="-119.641720">
        <ele>808.908</ele>
        <time>2018-12-28T13:56:15Z</time>
      </trkpt>
      <trkpt lat="37.362650" lon="-119.641850">
        <ele>808.249</ele>
        <time>2018-12-28T13:56:35Z</time>
      </trkpt>
      <trkpt lat="37.362660" lon="-119.642010">
        <ele>806.927</ele>
        <time>2018-12-28T13:56:55Z</time>
      </trkpt>
      <trkpt lat="37.362650" lon="-119.642140">
        <ele>805.622</ele>
        <time>2018-12-28T13:57:15Z</time>
      </trkpt>
      <trkpt lat="37.362630" lon="-119.642280">
        <ele>804.292</ele>
        <time>2018-12-28T13:57:35Z</time>
      </trkpt>
      <trkpt lat="37.362590" lon="-119.642420">
        <ele>802.896</ele>
        <time>2018-12-28T13:57:55Z</time>
      </trkpt>
      <trkpt lat="37.362560" lon="-119.642490">
        <ele>802.446</ele>
        <time>2018-12-28T13:58:15Z</time>
      </trkpt>
      <trkpt lat="37.362530" lon="-119.642580">
        <ele>802.112</ele>
        <time>2018-12-28T13:58:35Z</time>
      </trkpt>
      <trkpt lat="37.362470" lon="-119.642690">
        <ele>801.441</ele>
        <time>2018-12-28T13:58:55Z</time>
      </trkpt>
      <trkpt lat="37.362400" lon="-119.642780">
        <ele>801.026</ele>
        <time>2018-12-28T13:59:15Z</time>
      </trkpt>
      <trkpt lat="37.362350" lon="-119.642850">
        <ele>801.047</ele>
        <time>2018-12-28T13:59:35Z</time>
      </trkpt>
      <trkpt lat="37.362300" lon="-119.642900">
        <ele>800.711</ele>
        <time>2018-12-28T13:59:55Z</time>
      </trkpt>
      <trkpt lat="37.362260" lon="-119.642930">
        <ele>800.508</ele>
        <time>2018-12-28T14:00:15Z</time>
      </trkpt>
      <trkpt lat="37.362180" lon="-119.642990">
        <ele>800.455</ele>
        <time>2018-12-28T14:00:35Z</time>
      </trkpt>
      <trkpt lat="37.361970" lon="-119.643090">
        <ele>799.513</ele>
        <time>2018-12-28T14:00:55Z</time>
      </trkpt>
      <trkpt lat="37.361860" lon="-119.643130">
        <ele>798.758</ele>
        <time>2018-12-28T14:01:15Z</time>
      </trkpt>
      <trkpt lat="37.361730" lon="-119.643200">
        <ele>798.068</ele>
        <time>2018-12-28T14:01:35Z</time>
      </trkpt>
      <trkpt lat="37.361630" lon="-119.643270">
        <ele>797.222</ele>
        <time>2018-12-28T14:01:55Z</time>
      </trkpt>
      <trkpt lat="37.361560" lon="-119.643340">
        <ele>796.732</ele>
        <time>2018-12-28T14:02:15Z</time>
      </trkpt>
      <trkpt lat="37.361500" lon="-119.643400">
        <ele>796.318</ele>
        <time>2018-12-28T14:02:35Z</time>
      </trkpt>
      <trkpt lat="37.361440" lon="-119.643480">
        <ele>796.357</ele>
        <time>2018-12-28T14:02:55Z</time>
      </trkpt>
      <trkpt lat="37.361400" lon="-119.643550">
        <ele>796.169</ele>
        <time>2018-12-28T14:03:15Z</time>
      </trkpt>
      <trkpt lat="37.361360" lon="-119.643620">
        <ele>795.804</ele>
        <time>2018-12-28T14:03:35Z</time>
      </trkpt>
      <trkpt lat="37.361320" lon="-119.643700">
        <ele>795.624</ele>
        <time>2018-12-28T14:03:55Z</time>
      </trkpt>
      <trkpt lat="37.361320" lon="-119.643720">
        <ele>795.608</ele>
        <time>2018-12-28T14:04:15Z</time>
      </trkpt>
      <trkpt lat="37.361290" lon="-119.643790">
        <ele>795.119</ele>
        <time>2018-12-28T14:04:35Z</time>
      </trkpt>
      <trkpt lat="37.361260" lon="-119.643860">
        <ele>794.557</ele>
        <time>2018-12-28T14:04:55Z</time>
      </trkpt>
      <trkpt lat="37.361230" lon="-119.643950">
        <ele>793.692</ele>
        <time>2018-12-28T14:05:15Z</time>
      </trkpt>
      <trkpt lat="37.361210" lon="-119.644040">
        <ele>792.742</ele>
        <time>2018-12-28T14:05:35Z</time>
      </trkpt>
      <trkpt lat="37.361170" lon="-119.644170">
        <ele>791.116</ele>
        <time>2018-12-28T14:05:55Z</time>
      </trkpt>
      <trkpt lat="37.361140" lon="-119.644300">
        <ele>789.746</ele>
        <time>2018-12-28T14:06:15Z</time>
      </trkpt>
      <trkpt lat="37.361100" lon="-119.644440">
        <ele>788.832</ele>
        <time>2018-12-28T14:06:35Z</time>
      </trkpt>
      <trkpt lat="37.361070" lon="-119.644520">
        <ele>788.211</ele>
        <time>2018-12-28T14:06:55Z</time>
      </trkpt>
      <trkpt lat="37.361030" lon="-119.644600">
        <ele>787.642</ele>
        <time>2018-12-28T14:07:15Z</time>
      </trkpt>
      <trkpt lat="37.361000" lon="-119.644670">
        <ele>787.222</ele>
        <time>2018-12-28T14:07:35Z</time>
      </trkpt>
      <trkpt lat="37.360960" lon="-119.644730">
        <ele>786.714</ele>
        <time>2018-12-28T14:07:55Z</time>
      </trkpt>
      <trkpt lat="37.360920" lon="-119.644780">
        <ele>786.208</ele>
        <time>2018-12-28T14:08:15Z</time>
      </trkpt>
      <trkpt lat="37.360880" lon="-119.644830">
        <ele>785.737</ele>
        <time>2018-12-28T14:08:35Z</time>
      </trkpt>
      <trkpt lat="37.360820" lon="-119.644890">
        <ele>785.055</ele>
        <time>2018-12-28T14:08:55Z</time>
      </trkpt>
      <trkpt lat="37.360760" lon="-119.644950">
        <ele>784.260</ele>
        <time>2018-12-28T14:09:15Z</time>
      </trkpt>
      <trkpt lat="37.360690" lon="-119.645000">
        <ele>783.120</ele>
        <time>2018-12-28T14:09:35Z</time>
      </trkpt>
      <trkpt lat="37.360650" lon="-119.645030">
        <ele>782.434</ele>
        <time>2018-12-28T14:09:55Z</time>
      </trkpt>
      <trkpt lat="37.360600" lon="-119.645050">
        <ele>781.424</ele>
        <time>2018-12-28T14:10:15Z</time>
      </trkpt>
      <trkpt lat="37.360560" lon="-119.645070">
        <ele>780.750</ele>
        <time>2018-12-28T14:10:35Z</time>
      </trkpt>
      <trkpt lat="37.360520" lon="-119.645080">
        <ele>779.989</ele>
        <time>2018-12-28T14:10:55Z</time>
      </trkpt>
      <trkpt lat="37.360480" lon="-119.645090">
        <ele>779.245</ele>
        <time>2018-12-28T14:11:15Z</time>
      </trkpt>
      <trkpt lat="37.360440" lon="-119.645100">
        <ele>778.447</ele>
        <time>2018-12-28T14:11:35Z</time>
      </trkpt>
      <trkpt lat="37.360370" lon="-119.645110">
        <ele>778.111</ele>
        <time>2018-12-28T14:11:55Z</time>
      </trkpt>
      <trkpt lat="37.360280" lon="-119.645110">
        <ele>778.408</ele>
        <time>2018-12-28T14:12:15Z</time>
      </trkpt>
      <trkpt lat="37.360150" lon="-119.645080">
        <ele>778.017</ele>
        <time>2018-12-28T14:12:35Z</time>
      </trkpt>
      <trkpt lat="37.360080" lon="-119.645060">
        <ele>778.175</ele>
        <time>2018-12-28T14:12:55Z</time>
      </trkpt>
      <trkpt lat="37.360000" lon="-119.645040">
        <ele>778.510</ele>
        <time>2018-12-28T14:13:15Z</time>
      </trkpt>
      <trkpt lat="37.359810" lon="-119.644960">
        <ele>779.070</ele>
        <time>2018-12-28T14:13:35Z</time>
      </trkpt>
      <trkpt lat="37.359430" lon="-119.644800">
        <ele>779.484</ele>
        <time>2018-12-28T14:13:55Z</time>
      </trkpt>
      <trkpt lat="37.358980" lon="-119.644630">
        <ele>777.784</ele>
        <time>2018-12-28T14:14:15Z</time>
      </trkpt>
      <trkpt lat="37.358390" lon="-119.644430">
        <ele>774.560</ele>
        <time>2018-12-28T14:14:35Z</time>
      </trkpt>
      <trkpt lat="37.357890" lon="-119.644240">
        <ele>770.299</ele>
        <time>2018-12-28T14:14:55Z</time>
      </trkpt>
      <trkpt lat="37.357180" lon="-119.643930">
        <ele>766.799</ele>
        <time>2018-12-28T14:15:15Z</time>
      </trkpt>
      <trkpt lat="37.356900" lon="-119.643810">
        <ele>766.507</ele>
        <time>2018-12-28T14:15:35Z</time>
      </trkpt>
      <trkpt lat="37.356750" lon="-119.643760">
        <ele>766.527</ele>
        <time>2018-12-28T14:15:55Z</time>
      </trkpt>
      <trkpt lat="37.356600" lon="-119.643690">
        <ele>766.208</ele>
        <time>2018-12-28T14:16:15Z</time>
      </trkpt>
      <trkpt lat="37.356460" lon="-119.643650">
        <ele>766.212</ele>
        <time>2018-12-28T14:16:35Z</time>
      </trkpt>
      <trkpt lat="37.356290" lon="-119.643610">
        <ele>766.120</ele>
        <time>2018-12-28T14:16:55Z</time>
      </trkpt>
      <trkpt lat="37.356110" lon="-119.643570">
        <ele>765.975</ele>
        <time>2018-12-28T14:17:15Z</time>
      </trkpt>
      <trkpt lat="37.355970" lon="-119.643550">
        <ele>765.815</ele>
        <time>2018-12-28T14:17:35Z</time>
      </trkpt>
      <trkpt lat="37.355810" lon="-119.643540">
        <ele>765.329</ele>
        <time>2018-12-28T14:17:55Z</time>
      </trkpt>
      <trkpt lat="37.355680" lon="-119.643550">
        <ele>765.019</ele>
        <time>2018-12-28T14:18:15Z</time>
      </trkpt>
      <trkpt lat="37.355550" lon="-119.643570">
        <ele>764.665</ele>
        <time>2018-12-28T14:18:35Z</time>
      </trkpt>
      <trkpt lat="37.355400" lon="-119.643600">
        <ele>764.424</ele>
        <time>2018-12-28T14:18:55Z</time>
      </trkpt>
      <trkpt lat="37.355260" lon="-119.643640">
        <ele>764.039</ele>
        <time>2018-12-28T14:19:15Z</time>
      </trkpt>
      <trkpt lat="37.355080" lon="-119.643700">
        <ele>763.201</ele>
        <time>2018-12-28T14:19:35Z</time>
      </trkpt>
      <trkpt lat="37.354920" lon="-119.643770">
        <ele>761.621</ele>
        <time>2018-12-28T14:19:55Z</time>
      </trkpt>
      <trkpt lat="37.354730" lon="-119.643860">
        <ele>758.908</ele>
        <time>2018-12-28T14:20:15Z</time>
      </trkpt>
      <trkpt lat="37.354530" lon="-119.643950">
        <ele>755.576</ele>
        <time>2018-12-28T14:20:35Z</time>
      </trkpt>
      <trkpt lat="37.354360" lon="-119.644020">
        <ele>753.354</ele>
        <time>2018-12-28T14:20:55Z</time>
      </trkpt>
      <trkpt lat="37.354230" lon="-119.644040">
        <ele>752.369</ele>
        <time>2018-12-28T14:21:15Z</time>
      </trkpt>
      <trkpt lat="37.354100" lon="-119.644050">
        <ele>751.739</ele>
        <time>2018-12-28T14:21:35Z</time>
      </trkpt>
      <trkpt lat="37.353960" lon="-119.644040">
        <ele>751.123</ele>
        <time>2018-12-28T14:21:55Z</time>
      </trkpt>
      <trkpt lat="37.353820" lon="-119.644010">
        <ele>750.513</ele>
        <time>2018-12-28T14:22:15Z</time>
      </trkpt>
      <trkpt lat="37.353730" lon="-119.643980">
        <ele>750.069</ele>
        <time>2018-12-28T14:22:35Z</time>
      </trkpt>
      <trkpt lat="37.353450" lon="-119.643820">
        <ele>749.578</ele>
        <time>2018-12-28T14:22:55Z</time>
      </trkpt>
      <trkpt lat="37.353180" lon="-119.643620">
        <ele>749.256</ele>
        <time>2018-12-28T14:23:15Z</time>
      </trkpt>
      <trkpt lat="37.353100" lon="-119.643560">
        <ele>748.759</ele>
        <time>2018-12-28T14:23:35Z</time>
      </trkpt>
      <trkpt lat="37.353010" lon="-119.643500">
        <ele>748.114</ele>
        <time>2018-12-28T14:23:55Z</time>
      </trkpt>
      <trkpt lat="37.352900" lon="-119.643430">
        <ele>747.308</ele>
        <time>2018-12-28T14:24:15Z</time>
      </trkpt>
      <trkpt lat="37.352800" lon="-119.643380">
        <ele>746.788</ele>
        <time>2018-12-28T14:24:35Z</time>
      </trkpt>
      <trkpt lat="37.352720" lon="-119.643350">
        <ele>746.326</ele>
        <time>2018-12-28T14:24:55Z</time>
      </trkpt>
      <trkpt lat="37.352640" lon="-119.643320">
        <ele>746.061</ele>
        <time>2018-12-28T14:25:15Z</time>
      </trkpt>
      <trkpt lat="37.352470" lon="-119.643270">
        <ele>744.011</ele>
        <time>2018-12-28T14:25:35Z</time>
      </trkpt>
      <trkpt lat="37.352130" lon="-119.643170">
        <ele>739.675</ele>
        <time>2018-12-28T14:25:55Z</time>
      </trkpt>
      <trkpt lat="37.351880" lon="-119.643110">
        <ele>736.875</ele>
        <time>2018-12-28T14:26:15Z</time>
      </trkpt>
      <trkpt lat="37.351490" lon="-119.643030">
        <ele>737.711</ele>
        <time>2018-12-28T14:26:35Z</time>
      </trkpt>
      <trkpt lat="37.351220" lon="-119.642950">
        <ele>739.260</ele>
        <time>2018-12-28T14:26:55Z</time>
      </trkpt>
      <trkpt lat="37.350700" lon="-119.642810">
        <ele>738.993</ele>
        <time>2018-12-28T14:27:15Z</time>
      </trkpt>
      <trkpt lat="37.350480" lon="-119.642750">
        <ele>736.665</ele>
        <time>2018-12-28T14:27:35Z</time>
      </trkpt>
      <trkpt lat="37.350090" lon="-119.642670">
        <ele>732.021</ele>
        <time>2018-12-28T14:27:55Z</time>
      </trkpt>
      <trkpt lat="37.349710" lon="-119.642590">
        <ele>730.408</ele>
        <time>2018-12-28T14:28:15Z</time>
      </trkpt>
      <trkpt lat="37.349630" lon="-119.642570">
        <ele>730.322</ele>
        <time>2018-12-28T14:28:35Z</time>
      </trkpt>
      <trkpt lat="37.349130" lon="-119.642440">
        <ele>729.570</ele>
        <time>2018-12-28T14:28:55Z</time>
      </trkpt>
      <trkpt lat="37.348890" lon="-119.642380">
        <ele>729.085</ele>
        <time>2018-12-28T14:29:15Z</time>
      </trkpt>
      <trkpt lat="37.348730" lon="-119.642350">
        <ele>728.995</ele>
        <time>2018-12-28T14:29:35Z</time>
      </trkpt>
      <trkpt lat="37.348530" lon="-119.642320">
        <ele>728.559</ele>
        <time>2018-12-28T14:29:55Z</time>
      </trkpt>
      <trkpt lat="37.347830" lon="-119.642240">
        <ele>726.029</ele>
        <time>2018-12-28T14:30:15Z</time>
      </trkpt>
      <trkpt lat="37.347110" lon="-119.642210">
        <ele>723.185</ele>
        <time>2018-12-28T14:30:35Z</time>
      </trkpt>
      <trkpt lat="37.346730" lon="-119.642190">
        <ele>723.064</ele>
        <time>2018-12-28T14:30:55Z</time>
      </trkpt>
      <trkpt lat="37.346100" lon="-119.642150">
        <ele>722.266</ele>
        <time>2018-12-28T14:31:15Z</time>
      </trkpt>
      <trkpt lat="37.345270" lon="-119.642120">
        <ele>721.229</ele>
        <time>2018-12-28T14:31:35Z</time>
      </trkpt>
      <trkpt lat="37.344810" lon="-119.642100">
        <ele>721.221</ele>
        <time>2018-12-28T14:31:55Z</time>
      </trkpt>
      <trkpt lat="37.344750" lon="-119.642090">
        <ele>721.108</ele>
        <time>2018-12-28T14:32:15Z</time>
      </trkpt>
      <trkpt lat="37.344680" lon="-119.642090">
        <ele>721.169</ele>
        <time>2018-12-28T14:32:35Z</time>
      </trkpt>
      <trkpt lat="37.344200" lon="-119.642090">
        <ele>721.597</ele>
        <time>2018-12-28T14:32:55Z</time>
      </trkpt>
      <trkpt lat="37.343950" lon="-119.642110">
        <ele>722.682</ele>
        <time>2018-12-28T14:33:15Z</time>
      </trkpt>
      <trkpt lat="37.343750" lon="-119.642150">
        <ele>724.172</ele>
        <time>2018-12-28T14:33:35Z</time>
      </trkpt>
      <trkpt lat="37.343530" lon="-119.642200">
        <ele>724.766</ele>
        <time>2018-12-28T14:33:55Z</time>
      </trkpt>
      <trkpt lat="37.343350" lon="-119.642260">
        <ele>725.126</ele>
        <time>2018-12-28T14:34:15Z</time>
      </trkpt>
      <trkpt lat="37.343150" lon="-119.642310">
        <ele>725.772</ele>
        <time>2018-12-28T14:34:35Z</time>
      </trkpt>
      <trkpt lat="37.343010" lon="-119.642360">
        <ele>726.121</ele>
        <time>2018-12-28T14:34:55Z</time>
      </trkpt>
      <trkpt lat="37.342900" lon="-119.642400">
        <ele>726.687</ele>
        <time>2018-12-28T14:35:15Z</time>
      </trkpt>
      <trkpt lat="37.342800" lon="-119.642430">
        <ele>726.842</ele>
        <time>2018-12-28T14:35:35Z</time>
      </trkpt>
      <trkpt lat="37.342630" lon="-119.642520">
        <ele>727.926</ele>
        <time>2018-12-28T14:35:55Z</time>
      </trkpt>
      <trkpt lat="37.342440" lon="-119.642600">
        <ele>727.808</ele>
        <time>2018-12-28T14:36:15Z</time>
      </trkpt>
      <trkpt lat="37.342090" lon="-119.642770">
        <ele>727.491</ele>
        <time>2018-12-28T14:36:35Z</time>
      </trkpt>
      <trkpt lat="37.341340" lon="-119.643110">
        <ele>723.959</ele>
        <time>2018-12-28T14:36:55Z</time>
      </trkpt>
      <trkpt lat="37.341040" lon="-119.643260">
        <ele>722.594</ele>
        <time>2018-12-28T14:37:15Z</time>
      </trkpt>
      <trkpt lat="37.338850" lon="-119.644330">
        <ele>718.134</ele>
        <time>2018-12-28T14:37:35Z</time>
      </trkpt>
      <trkpt lat="37.338370" lon="-119.644560">
        <ele>718.888</ele>
        <time>2018-12-28T14:37:55Z</time>
      </trkpt>
      <trkpt lat="37.338170" lon="-119.644660">
        <ele>719.148</ele>
        <time>2018-12-28T14:38:15Z</time>
      </trkpt>
      <trkpt lat="37.337930" lon="-119.644780">
        <ele>718.864</ele>
        <time>2018-12-28T14:38:35Z</time>
      </trkpt>
      <trkpt lat="37.337380" lon="-119.645030">
        <ele>716.873</ele>
        <time>2018-12-28T14:38:55Z</time>
      </trkpt>
      <trkpt lat="37.337050" lon="-119.645190">
        <ele>716.748</ele>
        <time>2018-12-28T14:39:15Z</time>
      </trkpt>
      <trkpt lat="37.335530" lon="-119.645870">
        <ele>722.961</ele>
        <time>2018-12-28T14:39:35Z</time>
      </trkpt>
      <trkpt lat="37.335450" lon="-119.645910">
        <ele>723.017</ele>
        <time>2018-12-28T14:39:55Z</time>
      </trkpt>
      <trkpt lat="37.334880" lon="-119.646210">
        <ele>724.808</ele>
        <time>2018-12-28T14:40:15Z</time>
      </trkpt>
      <trkpt lat="37.334740" lon="-119.646290">
        <ele>725.327</ele>
        <time>2018-12-28T14:40:35Z</time>
      </trkpt>
      <trkpt lat="37.334640" lon="-119.646380">
        <ele>724.425</ele>
        <time>2018-12-28T14:40:55Z</time>
      </trkpt>
      <trkpt lat="37.334560" lon="-119.646470">
        <ele>722.920</ele>
        <time>2018-12-28T14:41:15Z</time>
      </trkpt>
      <trkpt lat="37.334490" lon="-119.646570">
        <ele>721.690</ele>
        <time>2018-12-28T14:41:35Z</time>
      </trkpt>
      <trkpt lat="37.334420" lon="-119.646690">
        <ele>720.574</ele>
        <time>2018-12-28T14:41:55Z</time>
      </trkpt>
      <trkpt lat="37.334340" lon="-119.646840">
        <ele>719.674</ele>
        <time>2018-12-28T14:42:15Z</time>
      </trkpt>
      <trkpt lat="37.334270" lon="-119.647020">
        <ele>718.740</ele>
        <time>2018-12-28T14:42:35Z</time>
      </trkpt>
      <trkpt lat="37.334200" lon="-119.647200">
        <ele>718.329</ele>
        <time>2018-12-28T14:42:55Z</time>
      </trkpt>
      <trkpt lat="37.333840" lon="-119.648280">
        <ele>716.325</ele>
        <time>2018-12-28T14:43:15Z</time>
      </trkpt>
      <trkpt lat="37.333700" lon="-119.648720">
        <ele>714.426</ele>
        <time>2018-12-28T14:43:35Z</time>
      </trkpt>
      <trkpt lat="37.333550" lon="-119.649180">
        <ele>710.408</ele>
        <time>2018-12-28T14:43:55Z</time>
      </trkpt>
      <trkpt lat="37.333370" lon="-119.649710">
        <ele>706.508</ele>
        <time>2018-12-28T14:44:15Z</time>
      </trkpt>
      <trkpt lat="37.333140" lon="-119.650400">
        <ele>703.555</ele>
        <time>2018-12-28T14:44:35Z</time>
      </trkpt>
      <trkpt lat="37.332960" lon="-119.650890">
        <ele>702.123</ele>
        <time>2018-12-28T14:44:55Z</time>
      </trkpt>
      <trkpt lat="37.332800" lon="-119.651400">
        <ele>700.448</ele>
        <time>2018-12-28T14:45:15Z</time>
      </trkpt>
      <trkpt lat="37.332410" lon="-119.652590">
        <ele>696.568</ele>
        <time>2018-12-28T14:45:35Z</time>
      </trkpt>
      <trkpt lat="37.331940" lon="-119.653970">
        <ele>692.952</ele>
        <time>2018-12-28T14:45:55Z</time>
      </trkpt>
      <trkpt lat="37.331750" lon="-119.654470">
        <ele>690.742</ele>
        <time>2018-12-28T14:46:15Z</time>
      </trkpt>
      <trkpt lat="37.331670" lon="-119.654650">
        <ele>689.768</ele>
        <time>2018-12-28T14:46:35Z</time>
      </trkpt>
      <trkpt lat="37.331560" lon="-119.654960">
        <ele>688.587</ele>
        <time>2018-12-28T14:46:55Z</time>
      </trkpt>
      <trkpt lat="37.331160" lon="-119.655580">
        <ele>686.998</ele>
        <time>2018-12-28T14:47:15Z</time>
      </trkpt>
      <trkpt lat="37.331090" lon="-119.655690">
        <ele>686.715</ele>
        <time>2018-12-28T14:47:35Z</time>
      </trkpt>
      <trkpt lat="37.330890" lon="-119.655970">
        <ele>686.326</ele>
        <time>2018-12-28T14:47:55Z</time>
      </trkpt>
      <trkpt lat="37.330650" lon="-119.656220">
        <ele>685.908</ele>
        <time>2018-12-28T14:48:15Z</time>
      </trkpt>
      <trkpt lat="37.330520" lon="-119.656320">
        <ele>685.572</ele>
        <time>2018-12-28T14:48:35Z</time>
      </trkpt>
      <trkpt lat="37.330360" lon="-119.656350">
        <ele>684.740</ele>
        <time>2018-12-28T14:48:55Z</time>
      </trkpt>
      <trkpt lat="37.330290" lon="-119.656430">
        <ele>684.785</ele>
        <time>2018-12-28T14:49:15Z</time>
      </trkpt>
      <trkpt lat="37.330200" lon="-119.656510">
        <ele>684.425</ele>
        <time>2018-12-28T14:49:35Z</time>
      </trkpt>
      <trkpt lat="37.330130" lon="-119.656570">
        <ele>684.189</ele>
        <time>2018-12-28T14:49:55Z</time>
      </trkpt>
      <trkpt lat="37.330070" lon="-119.656630">
        <ele>683.759</ele>
        <time>2018-12-28T14:50:15Z</time>
      </trkpt>
      <trkpt lat="37.329650" lon="-119.657020">
        <ele>681.365</ele>
        <time>2018-12-28T14:50:35Z</time>
      </trkpt>
      <trkpt lat="37.329560" lon="-119.657130">
        <ele>680.854</ele>
        <time>2018-12-28T14:50:55Z</time>
      </trkpt>
      <trkpt lat="37.329310" lon="-119.657360">
        <ele>680.388</ele>
        <time>2018-12-28T14:51:15Z</time>
      </trkpt>
      <trkpt lat="37.328620" lon="-119.658050">
        <ele>680.724</ele>
        <time>2018-12-28T14:51:35Z</time>
      </trkpt>
      <trkpt lat="37.328360" lon="-119.658300">
        <ele>681.626</ele>
        <time>2018-12-28T14:51:55Z</time>
      </trkpt>
      <trkpt lat="37.328200" lon="-119.658450">
        <ele>683.808</ele>
        <time>2018-12-28T14:52:15Z</time>
      </trkpt>
      <trkpt lat="37.327480" lon="-119.659150">
        <ele>694.121</ele>
        <time>2018-12-28T14:52:35Z</time>
      </trkpt>
      <trkpt lat="37.327090" lon="-119.659530">
        <ele>698.149</ele>
        <time>2018-12-28T14:52:55Z</time>
      </trkpt>
      <trkpt lat="37.326700" lon="-119.659890">
        <ele>703.254</ele>
        <time>2018-12-28T14:53:15Z</time>
      </trkpt>
      <trkpt lat="37.326490" lon="-119.660080">
        <ele>705.034</ele>
        <time>2018-12-28T14:53:35Z</time>
      </trkpt>
      <trkpt lat="37.326010" lon="-119.660430">
        <ele>707.438</ele>
        <time>2018-12-28T14:53:55Z</time>
      </trkpt>
      <trkpt lat="37.325580" lon="-119.660720">
        <ele>717.828</ele>
        <time>2018-12-28T14:54:15Z</time>
      </trkpt>
      <trkpt lat="37.325180" lon="-119.661000">
        <ele>720.264</ele>
        <time>2018-12-28T14:54:35Z</time>
      </trkpt>
      <trkpt lat="37.325140" lon="-119.661020">
        <ele>720.233</ele>
        <time>2018-12-28T14:54:55Z</time>
      </trkpt>
      <trkpt lat="37.324890" lon="-119.661190">
        <ele>720.365</ele>
        <time>2018-12-28T14:55:15Z</time>
      </trkpt>
      <trkpt lat="37.324650" lon="-119.661340">
        <ele>720.468</ele>
        <time>2018-12-28T14:55:35Z</time>
      </trkpt>
      <trkpt lat="37.323940" lon="-119.661740">
        <ele>728.614</ele>
        <time>2018-12-28T14:55:55Z</time>
      </trkpt>
      <trkpt lat="37.322020" lon="-119.662900">
        <ele>734.708</ele>
        <time>2018-12-28T14:56:15Z</time>
      </trkpt>
      <trkpt lat="37.321870" lon="-119.662950">
        <ele>737.269</ele>
        <time>2018-12-28T14:56:35Z</time>
      </trkpt>
      <trkpt lat="37.321790" lon="-119.662990">
        <ele>738.747</ele>
        <time>2018-12-28T14:56:55Z</time>
      </trkpt>
      <trkpt lat="37.321300" lon="-119.663300">
        <ele>744.262</ele>
        <time>2018-12-28T14:57:15Z</time>
      </trkpt>
      <trkpt lat="37.321070" lon="-119.663450">
        <ele>747.562</ele>
        <time>2018-12-28T14:57:35Z</time>
      </trkpt>
      <trkpt lat="37.320840" lon="-119.663590">
        <ele>751.346</ele>
        <time>2018-12-28T14:57:55Z</time>
      </trkpt>
      <trkpt lat="37.320690" lon="-119.663670">
        <ele>752.956</ele>
        <time>2018-12-28T14:58:15Z</time>
      </trkpt>
      <trkpt lat="37.320510" lon="-119.663750">
        <ele>754.142</ele>
        <time>2018-12-28T14:58:35Z</time>
      </trkpt>
      <trkpt lat="37.320390" lon="-119.663790">
        <ele>755.471</ele>
        <time>2018-12-28T14:58:55Z</time>
      </trkpt>
      <trkpt lat="37.320270" lon="-119.663810">
        <ele>757.698</ele>
        <time>2018-12-28T14:59:15Z</time>
      </trkpt>
      <trkpt lat="37.320140" lon="-119.663810">
        <ele>759.415</ele>
        <time>2018-12-28T14:59:35Z</time>
      </trkpt>
      <trkpt lat="37.319980" lon="-119.663800">
        <ele>762.526</ele>
        <time>2018-12-28T14:59:55Z</time>
      </trkpt>
      <trkpt lat="37.319850" lon="-119.663780">
        <ele>764.408</ele>
        <time>2018-12-28T15:00:15Z</time>
      </trkpt>
      <trkpt lat="37.319760" lon="-119.663760">
        <ele>764.762</ele>
        <time>2018-12-28T15:00:35Z</time>
      </trkpt>
      <trkpt lat="37.319650" lon="-119.663720">
        <ele>764.870</ele>
        <time>2018-12-28T15:00:55Z</time>
      </trkpt>
      <trkpt lat="37.319550" lon="-119.663670">
        <ele>764.965</ele>
        <time>2018-12-28T15:01:15Z</time>
      </trkpt>
      <trkpt lat="37.319430" lon="-119.663610">
        <ele>765.395</ele>
        <time>2018-12-28T15:01:35Z</time>
      </trkpt>
      <trkpt lat="37.319340" lon="-119.663540">
        <ele>765.299</ele>
        <time>2018-12-28T15:01:55Z</time>
      </trkpt>
      <trkpt lat="37.319270" lon="-119.663480">
        <ele>765.259</ele>
        <time>2018-12-28T15:02:15Z</time>
      </trkpt>
      <trkpt lat="37.319190" lon="-119.663410">
        <ele>765.765</ele>
        <time>2018-12-28T15:02:35Z</time>
      </trkpt>
      <trkpt lat="37.319100" lon="-119.663310">
        <ele>767.064</ele>
        <time>2018-12-28T15:02:55Z</time>
      </trkpt>
      <trkpt lat="37.319000" lon="-119.663190">
        <ele>770.127</ele>
        <time>2018-12-28T15:03:15Z</time>
      </trkpt>
      <trkpt lat="37.318900" lon="-119.663050">
        <ele>773.568</ele>
        <time>2018-12-28T15:03:35Z</time>
      </trkpt>
      <trkpt lat="37.318830" lon="-119.662920">
        <ele>775.614</ele>
        <time>2018-12-28T15:03:55Z</time>
      </trkpt>
      <trkpt lat="37.318800" lon="-119.662840">
        <ele>776.108</ele>
        <time>2018-12-28T15:04:15Z</time>
      </trkpt>
      <trkpt lat="37.318750" lon="-119.662710">
        <ele>776.945</ele>
        <time>2018-12-28T15:04:35Z</time>
      </trkpt>
      <trkpt lat="37.318690" lon="-119.662510">
        <ele>778.543</ele>
        <time>2018-12-28T15:04:55Z</time>
      </trkpt>
      <trkpt lat="37.318650" lon="-119.662300">
        <ele>778.518</ele>
        <time>2018-12-28T15:05:15Z</time>
      </trkpt>
      <trkpt lat="37.318620" lon="-119.662090">
        <ele>777.968</ele>
        <time>2018-12-28T15:05:35Z</time>
      </trkpt>
      <trkpt lat="37.318550" lon="-119.661550">
        <ele>775.652</ele>
        <time>2018-12-28T15:05:55Z</time>
      </trkpt>
      <trkpt lat="37.318530" lon="-119.661400">
        <ele>775.472</ele>
        <time>2018-12-28T15:06:15Z</time>
      </trkpt>
      <trkpt lat="37.318490" lon="-119.661190">
        <ele>775.288</ele>
        <time>2018-12-28T15:06:35Z</time>
      </trkpt>
      <trkpt lat="37.318450" lon="-119.661010">
        <ele>774.657</ele>
        <time>2018-12-28T15:06:55Z</time>
      </trkpt>
      <trkpt lat="37.318400" lon="-119.660820">
        <ele>773.494</ele>
        <time>2018-12-28T15:07:15Z</time>
      </trkpt>
      <trkpt lat="37.318330" lon="-119.660650">
        <ele>773.857</ele>
        <time>2018-12-28T15:07:35Z</time>
      </trkpt>
      <trkpt lat="37.318260" lon="-119.660480">
        <ele>778.222</ele>
        <time>2018-12-28T15:07:55Z</time>
      </trkpt>
      <trkpt lat="37.318180" lon="-119.660310">
        <ele>782.508</ele>
        <time>2018-12-28T15:08:15Z</time>
      </trkpt>
      <trkpt lat="37.318080" lon="-119.660140">
        <ele>784.472</ele>
        <time>2018-12-28T15:08:35Z</time>
      </trkpt>
      <trkpt lat="37.317950" lon="-119.659970">
        <ele>785.640</ele>
        <time>2018-12-28T15:08:55Z</time>
      </trkpt>
      <trkpt lat="37.317810" lon="-119.659810">
        <ele>786.685</ele>
        <time>2018-12-28T15:09:15Z</time>
      </trkpt>
      <trkpt lat="37.317690" lon="-119.659700">
        <ele>787.395</ele>
        <time>2018-12-28T15:09:35Z</time>
      </trkpt>
      <trkpt lat="37.317510" lon="-119.659540">
        <ele>789.539</ele>
        <time>2018-12-28T15:09:55Z</time>
      </trkpt>
      <trkpt lat="37.317250" lon="-119.659360">
        <ele>794.489</ele>
        <time>2018-12-28T15:10:15Z</time>
      </trkpt>
      <trkpt lat="37.316960" lon="-119.659140">
        <ele>798.495</ele>
        <time>2018-12-28T15:10:35Z</time>
      </trkpt>
      <trkpt lat="37.316770" lon="-119.659000">
        <ele>800.124</ele>
        <time>2018-12-28T15:10:55Z</time>
      </trkpt>
      <trkpt lat="37.316670" lon="-119.658900">
        <ele>800.326</ele>
        <time>2018-12-28T15:11:15Z</time>
      </trkpt>
      <trkpt lat="37.316550" lon="-119.658780">
        <ele>801.047</ele>
        <time>2018-12-28T15:11:35Z</time>
      </trkpt>
      <trkpt lat="37.316440" lon="-119.658660">
        <ele>801.511</ele>
        <time>2018-12-28T15:11:55Z</time>
      </trkpt>
      <trkpt lat="37.316300" lon="-119.658490">
        <ele>802.008</ele>
        <time>2018-12-28T15:12:15Z</time>
      </trkpt>
      <trkpt lat="37.316060" lon="-119.658160">
        <ele>802.085</ele>
        <time>2018-12-28T15:12:35Z</time>
      </trkpt>
      <trkpt lat="37.315870" lon="-119.657800">
        <ele>806.823</ele>
        <time>2018-12-28T15:12:55Z</time>
      </trkpt>
      <trkpt lat="37.315760" lon="-119.657610">
        <ele>808.598</ele>
        <time>2018-12-28T15:13:15Z</time>
      </trkpt>
      <trkpt lat="37.315650" lon="-119.657450">
        <ele>809.818</ele>
        <time>2018-12-28T15:13:35Z</time>
      </trkpt>
      <trkpt lat="37.315520" lon="-119.657290">
        <ele>810.482</ele>
        <time>2018-12-28T15:13:55Z</time>
      </trkpt>
      <trkpt lat="37.315390" lon="-119.657140">
        <ele>810.682</ele>
        <time>2018-12-28T15:14:15Z</time>
      </trkpt>
      <trkpt lat="37.315220" lon="-119.656970">
        <ele>810.718</ele>
        <time>2018-12-28T15:14:35Z</time>
      </trkpt>
      <trkpt lat="37.314990" lon="-119.656760">
        <ele>810.987</ele>
        <time>2018-12-28T15:14:55Z</time>
      </trkpt>
      <trkpt lat="37.314370" lon="-119.656250">
        <ele>815.495</ele>
        <time>2018-12-28T15:15:15Z</time>
      </trkpt>
      <trkpt lat="37.313880" lon="-119.655850">
        <ele>822.749</ele>
        <time>2018-12-28T15:15:35Z</time>
      </trkpt>
      <trkpt lat="37.313740" lon="-119.655750">
        <ele>823.523</ele>
        <time>2018-12-28T15:15:55Z</time>
      </trkpt>
      <trkpt lat="37.313610" lon="-119.655680">
        <ele>823.608</ele>
        <time>2018-12-28T15:16:15Z</time>
      </trkpt>
      <trkpt lat="37.313480" lon="-119.655620">
        <ele>824.122</ele>
        <time>2018-12-28T15:16:35Z</time>
      </trkpt>
      <trkpt lat="37.313370" lon="-119.655580">
        <ele>824.330</ele>
        <time>2018-12-28T15:16:55Z</time>
      </trkpt>
      <trkpt lat="37.313230" lon="-119.655550">
        <ele>824.975</ele>
        <time>2018-12-28T15:17:15Z</time>
      </trkpt>
      <trkpt lat="37.313040" lon="-119.655520">
        <ele>827.165</ele>
        <time>2018-12-28T15:17:35Z</time>
      </trkpt>
      <trkpt lat="37.312890" lon="-119.655510">
        <ele>829.389</ele>
        <time>2018-12-28T15:17:55Z</time>
      </trkpt>
      <trkpt lat="37.312740" lon="-119.655520">
        <ele>831.669</ele>
        <time>2018-12-28T15:18:15Z</time>
      </trkpt>
      <trkpt lat="37.312590" lon="-119.655530">
        <ele>833.495</ele>
        <time>2018-12-28T15:18:35Z</time>
      </trkpt>
      <trkpt lat="37.312460" lon="-119.655560">
        <ele>834.334</ele>
        <time>2018-12-28T15:18:55Z</time>
      </trkpt>
      <trkpt lat="37.312330" lon="-119.655600">
        <ele>835.182</ele>
        <time>2018-12-28T15:19:15Z</time>
      </trkpt>
      <trkpt lat="37.312130" lon="-119.655690">
        <ele>835.543</ele>
        <time>2018-12-28T15:19:35Z</time>
      </trkpt>
      <trkpt lat="37.311270" lon="-119.656080">
        <ele>838.317</ele>
        <time>2018-12-28T15:19:55Z</time>
      </trkpt>
      <trkpt lat="37.310910" lon="-119.656220">
        <ele>840.108</ele>
        <time>2018-12-28T15:20:15Z</time>
      </trkpt>
      <trkpt lat="37.310760" lon="-119.656270">
        <ele>843.911</ele>
        <time>2018-12-28T15:20:35Z</time>
      </trkpt>
      <trkpt lat="37.310640" lon="-119.656300">
        <ele>845.679</ele>
        <time>2018-12-28T15:20:55Z</time>
      </trkpt>
      <trkpt lat="37.310470" lon="-119.656300">
        <ele>846.184</ele>
        <time>2018-12-28T15:21:15Z</time>
      </trkpt>
      <trkpt lat="37.310340" lon="-119.656300">
        <ele>846.984</ele>
        <time>2018-12-28T15:21:35Z</time>
      </trkpt>
      <trkpt lat="37.310190" lon="-119.656280">
        <ele>847.718</ele>
        <time>2018-12-28T15:21:55Z</time>
      </trkpt>
      <trkpt lat="37.310050" lon="-119.656250">
        <ele>848.658</ele>
        <time>2018-12-28T15:22:15Z</time>
      </trkpt>
      <trkpt lat="37.309880" lon="-119.656200">
        <ele>849.414</ele>
        <time>2018-12-28T15:22:35Z</time>
      </trkpt>
      <trkpt lat="37.309630" lon="-119.656090">
        <ele>852.523</ele>
        <time>2018-12-28T15:22:55Z</time>
      </trkpt>
      <trkpt lat="37.309450" lon="-119.655990">
        <ele>855.779</ele>
        <time>2018-12-28T15:23:15Z</time>
      </trkpt>
      <trkpt lat="37.309330" lon="-119.655910">
        <ele>856.805</ele>
        <time>2018-12-28T15:23:35Z</time>
      </trkpt>
      <trkpt lat="37.309120" lon="-119.655730">
        <ele>857.625</ele>
        <time>2018-12-28T15:23:55Z</time>
      </trkpt>
      <trkpt lat="37.308670" lon="-119.655360">
        <ele>860.008</ele>
        <time>2018-12-28T15:24:15Z</time>
      </trkpt>
      <trkpt lat="37.308290" lon="-119.655040">
        <ele>862.210</ele>
        <time>2018-12-28T15:24:35Z</time>
      </trkpt>
      <trkpt lat="37.307690" lon="-119.654540">
        <ele>869.918</ele>
        <time>2018-12-28T15:24:55Z</time>
      </trkpt>
      <trkpt lat="37.307100" lon="-119.653960">
        <ele>873.923</ele>
        <time>2018-12-28T15:25:15Z</time>
      </trkpt>
      <trkpt lat="37.306690" lon="-119.653470">
        <ele>881.673</ele>
        <time>2018-12-28T15:25:35Z</time>
      </trkpt>
      <trkpt lat="37.306360" lon="-119.653020">
        <ele>884.097</ele>
        <time>2018-12-28T15:25:55Z</time>
      </trkpt>
      <trkpt lat="37.306060" lon="-119.652630">
        <ele>887.227</ele>
        <time>2018-12-28T15:26:15Z</time>
      </trkpt>
      <trkpt lat="37.305800" lon="-119.652290">
        <ele>893.623</ele>
        <time>2018-12-28T15:26:35Z</time>
      </trkpt>
      <trkpt lat="37.305470" lon="-119.651860">
        <ele>893.392</ele>
        <time>2018-12-28T15:26:55Z</time>
      </trkpt>
      <trkpt lat="37.305160" lon="-119.651470">
        <ele>893.149</ele>
        <time>2018-12-28T15:27:15Z</time>
      </trkpt>
      <trkpt lat="37.304990" lon="-119.651270">
        <ele>895.202</ele>
        <time>2018-12-28T15:27:35Z</time>
      </trkpt>
      <trkpt lat="37.304800" lon="-119.651090">
        <ele>898.522</ele>
        <time>2018-12-28T15:27:55Z</time>
      </trkpt>
      <trkpt lat="37.304510" lon="-119.650830">
        <ele>904.108</ele>
        <time>2018-12-28T15:28:15Z</time>
      </trkpt>
      <trkpt lat="37.304300" lon="-119.650650">
        <ele>906.147</ele>
        <time>2018-12-28T15:28:35Z</time>
      </trkpt>
      <trkpt lat="37.304140" lon="-119.650530">
        <ele>906.695</ele>
        <time>2018-12-28T15:28:55Z</time>
      </trkpt>
      <trkpt lat="37.303990" lon="-119.650420">
        <ele>906.940</ele>
        <time>2018-12-28T15:29:15Z</time>
      </trkpt>
      <trkpt lat="37.303780" lon="-119.650290">
        <ele>906.360</ele>
        <time>2018-12-28T15:29:35Z</time>
      </trkpt>
      <trkpt lat="37.303400" lon="-119.650100">
        <ele>907.764</ele>
        <time>2018-12-28T15:29:55Z</time>
      </trkpt>
      <trkpt lat="37.303060" lon="-119.649930">
        <ele>909.214</ele>
        <time>2018-12-28T15:30:15Z</time>
      </trkpt>
      <trkpt lat="37.302660" lon="-119.649770">
        <ele>910.580</ele>
        <time>2018-12-28T15:30:35Z</time>
      </trkpt>
      <trkpt lat="37.302020" lon="-119.649470">
        <ele>912.789</ele>
        <time>2018-12-28T15:30:55Z</time>
      </trkpt>
      <trkpt lat="37.301170" lon="-119.649070">
        <ele>921.012</ele>
        <time>2018-12-28T15:31:15Z</time>
      </trkpt>
      <trkpt lat="37.300660" lon="-119.648890">
        <ele>923.332</ele>
        <time>2018-12-28T15:31:35Z</time>
      </trkpt>
      <trkpt lat="37.300410" lon="-119.648850">
        <ele>924.505</ele>
        <time>2018-12-28T15:31:55Z</time>
      </trkpt>
      <trkpt lat="37.300210" lon="-119.648820">
        <ele>924.608</ele>
        <time>2018-12-28T15:32:15Z</time>
      </trkpt>
      <trkpt lat="37.299990" lon="-119.648800">
        <ele>924.514</ele>
        <time>2018-12-28T15:32:35Z</time>
      </trkpt>
      <trkpt lat="37.299770" lon="-119.648790">
        <ele>924.692</ele>
        <time>2018-12-28T15:32:55Z</time>
      </trkpt>
      <trkpt lat="37.299060" lon="-119.648780">
        <ele>924.177</ele>
        <time>2018-12-28T15:33:15Z</time>
      </trkpt>
      <trkpt lat="37.298820" lon="-119.648770">
        <ele>919.047</ele>
        <time>2018-12-28T15:33:35Z</time>
      </trkpt>
      <trkpt lat="37.298020" lon="-119.648770">
        <ele>913.771</ele>
        <time>2018-12-28T15:33:55Z</time>
      </trkpt>
      <trkpt lat="37.297080" lon="-119.648750">
        <ele>903.581</ele>
        <time>2018-12-28T15:34:15Z</time>
      </trkpt>
      <trkpt lat="37.296630" lon="-119.648750">
        <ele>900.167</ele>
        <time>2018-12-28T15:34:35Z</time>
      </trkpt>
      <trkpt lat="37.296270" lon="-119.648740">
        <ele>898.136</ele>
        <time>2018-12-28T15:34:55Z</time>
      </trkpt>
      <trkpt lat="37.295940" lon="-119.648720">
        <ele>899.192</ele>
        <time>2018-12-28T15:35:15Z</time>
      </trkpt>
      <trkpt lat="37.295580" lon="-119.648690">
        <ele>897.873</ele>
        <time>2018-12-28T15:35:35Z</time>
      </trkpt>
      <trkpt lat="37.295320" lon="-119.648650">
        <ele>897.420</ele>
        <time>2018-12-28T15:35:55Z</time>
      </trkpt>
      <trkpt lat="37.295020" lon="-119.648580">
        <ele>895.308</ele>
        <time>2018-12-28T15:36:15Z</time>
      </trkpt>
      <trkpt lat="37.294670" lon="-119.648510">
        <ele>890.272</ele>
        <time>2018-12-28T15:36:35Z</time>
      </trkpt>
      <trkpt lat="37.294290" lon="-119.648400">
        <ele>884.860</ele>
        <time>2018-12-28T15:36:55Z</time>
      </trkpt>
      <trkpt lat="37.293920" lon="-119.648290">
        <ele>876.365</ele>
        <time>2018-12-28T15:37:15Z</time>
      </trkpt>
      <trkpt lat="37.293580" lon="-119.648180">
        <ele>875.315</ele>
        <time>2018-12-28T15:37:35Z</time>
      </trkpt>
      <trkpt lat="37.293400" lon="-119.648130">
        <ele>877.439</ele>
        <time>2018-12-28T15:37:55Z</time>
      </trkpt>
      <trkpt lat="37.293210" lon="-119.648080">
        <ele>877.259</ele>
        <time>2018-12-28T15:38:15Z</time>
      </trkpt>
      <trkpt lat="37.293030" lon="-119.648060">
        <ele>877.885</ele>
        <time>2018-12-28T15:38:35Z</time>
      </trkpt>
      <trkpt lat="37.292830" lon="-119.648030">
        <ele>878.024</ele>
        <time>2018-12-28T15:38:55Z</time>
      </trkpt>
      <trkpt lat="37.292660" lon="-119.648020">
        <ele>878.079</ele>
        <time>2018-12-28T15:39:15Z</time>
      </trkpt>
      <trkpt lat="37.292470" lon="-119.648020">
        <ele>876.605</ele>
        <time>2018-12-28T15:39:35Z</time>
      </trkpt>
      <trkpt lat="37.292300" lon="-119.648020">
        <ele>875.325</ele>
        <time>2018-12-28T15:39:55Z</time>
      </trkpt>
      <trkpt lat="37.292020" lon="-119.648040">
        <ele>872.608</ele>
        <time>2018-12-28T15:40:15Z</time>
      </trkpt>
      <trkpt lat="37.291780" lon="-119.648060">
        <ele>869.940</ele>
        <time>2018-12-28T15:40:35Z</time>
      </trkpt>
      <trkpt lat="37.291620" lon="-119.648090">
        <ele>867.718</ele>
        <time>2018-12-28T15:40:55Z</time>
      </trkpt>
      <trkpt lat="37.291370" lon="-119.648150">
        <ele>864.633</ele>
        <time>2018-12-28T15:41:15Z</time>
      </trkpt>
      <trkpt lat="37.291200" lon="-119.648210">
        <ele>861.593</ele>
        <time>2018-12-28T15:41:35Z</time>
      </trkpt>
      <trkpt lat="37.290990" lon="-119.648280">
        <ele>856.047</ele>
        <time>2018-12-28T15:41:55Z</time>
      </trkpt>
      <trkpt lat="37.290730" lon="-119.648410">
        <ele>853.027</ele>
        <time>2018-12-28T15:42:15Z</time>
      </trkpt>
      <trkpt lat="37.290450" lon="-119.648550">
        <ele>857.553</ele>
        <time>2018-12-28T15:42:35Z</time>
      </trkpt>
      <trkpt lat="37.290180" lon="-119.648710">
        <ele>862.942</ele>
        <time>2018-12-28T15:42:55Z</time>
      </trkpt>
      <trkpt lat="37.289980" lon="-119.648850">
        <ele>863.748</ele>
        <time>2018-12-28T15:43:15Z</time>
      </trkpt>
      <trkpt lat="37.289690" lon="-119.649090">
        <ele>859.461</ele>
        <time>2018-12-28T15:43:35Z</time>
      </trkpt>
      <trkpt lat="37.289480" lon="-119.649290">
        <ele>853.917</ele>
        <time>2018-12-28T15:43:55Z</time>
      </trkpt>
      <trkpt lat="37.289310" lon="-119.649470">
        <ele>851.908</ele>
        <time>2018-12-28T15:44:15Z</time>
      </trkpt>
      <trkpt lat="37.289160" lon="-119.649640">
        <ele>849.157</ele>
        <time>2018-12-28T15:44:35Z</time>
      </trkpt>
      <trkpt lat="37.289050" lon="-119.649760">
        <ele>847.215</ele>
        <time>2018-12-28T15:44:55Z</time>
      </trkpt>
      <trkpt lat="37.288920" lon="-119.649940">
        <ele>844.610</ele>
        <time>2018-12-28T15:45:15Z</time>
      </trkpt>
      <trkpt lat="37.288820" lon="-119.650100">
        <ele>842.920</ele>
        <time>2018-12-28T15:45:35Z</time>
      </trkpt>
      <trkpt lat="37.288690" lon="-119.650300">
        <ele>841.124</ele>
        <time>2018-12-28T15:45:55Z</time>
      </trkpt>
      <trkpt lat="37.288570" lon="-119.650500">
        <ele>838.994</ele>
        <time>2018-12-28T15:46:15Z</time>
      </trkpt>
      <trkpt lat="37.288460" lon="-119.650700">
        <ele>836.520</ele>
        <time>2018-12-28T15:46:35Z</time>
      </trkpt>
      <trkpt lat="37.288190" lon="-119.651210">
        <ele>833.299</ele>
        <time>2018-12-28T15:46:55Z</time>
      </trkpt>
      <trkpt lat="37.288020" lon="-119.651560">
        <ele>831.729</ele>
        <time>2018-12-28T15:47:15Z</time>
      </trkpt>
      <trkpt lat="37.287830" lon="-119.651870">
        <ele>829.500</ele>
        <time>2018-12-28T15:47:35Z</time>
      </trkpt>
      <trkpt lat="37.287440" lon="-119.652600">
        <ele>821.220</ele>
        <time>2018-12-28T15:47:55Z</time>
      </trkpt>
      <trkpt lat="37.286850" lon="-119.653800">
        <ele>816.408</ele>
        <time>2018-12-28T15:48:15Z</time>
      </trkpt>
      <trkpt lat="37.286600" lon="-119.654250">
        <ele>815.235</ele>
        <time>2018-12-28T15:48:35Z</time>
      </trkpt>
      <trkpt lat="37.286080" lon="-119.655160">
        <ele>814.193</ele>
        <time>2018-12-28T15:48:55Z</time>
      </trkpt>
      <trkpt lat="37.285830" lon="-119.655630">
        <ele>813.958</ele>
        <time>2018-12-28T15:49:15Z</time>
      </trkpt>
      <trkpt lat="37.285620" lon="-119.655970">
        <ele>813.518</ele>
        <time>2018-12-28T15:49:35Z</time>
      </trkpt>
      <trkpt lat="37.285430" lon="-119.656290">
        <ele>813.342</ele>
        <time>2018-12-28T15:49:55Z</time>
      </trkpt>
      <trkpt lat="37.285220" lon="-119.656620">
        <ele>812.642</ele>
        <time>2018-12-28T15:50:15Z</time>
      </trkpt>
      <trkpt lat="37.284880" lon="-119.657120">
        <ele>812.238</ele>
        <time>2018-12-28T15:50:35Z</time>
      </trkpt>
      <trkpt lat="37.284510" lon="-119.657640">
        <ele>812.317</ele>
        <time>2018-12-28T15:50:55Z</time>
      </trkpt>
      <trkpt lat="37.283940" lon="-119.658360">
        <ele>810.035</ele>
        <time>2018-12-28T15:51:15Z</time>
      </trkpt>
      <trkpt lat="37.283430" lon="-119.658930">
        <ele>806.786</ele>
        <time>2018-12-28T15:51:35Z</time>
      </trkpt>
      <trkpt lat="37.282770" lon="-119.659580">
        <ele>802.214</ele>
        <time>2018-12-28T15:51:55Z</time>
      </trkpt>
      <trkpt lat="37.282130" lon="-119.660340">
        <ele>799.308</ele>
        <time>2018-12-28T15:52:15Z</time>
      </trkpt>
      <trkpt lat="37.282050" lon="-119.660440">
        <ele>799.166</ele>
        <time>2018-12-28T15:52:35Z</time>
      </trkpt>
      <trkpt lat="37.281980" lon="-119.660560">
        <ele>800.664</ele>
        <time>2018-12-28T15:52:55Z</time>
      </trkpt>
      <trkpt lat="37.281900" lon="-119.660720">
        <ele>797.769</ele>
        <time>2018-12-28T15:53:15Z</time>
      </trkpt>
      <trkpt lat="37.281810" lon="-119.660920">
        <ele>798.219</ele>
        <time>2018-12-28T15:53:35Z</time>
      </trkpt>
      <trkpt lat="37.281720" lon="-119.661150">
        <ele>800.243</ele>
        <time>2018-12-28T15:53:55Z</time>
      </trkpt>
      <trkpt lat="37.281660" lon="-119.661350">
        <ele>800.363</ele>
        <time>2018-12-28T15:54:15Z</time>
      </trkpt>
      <trkpt lat="37.281560" lon="-119.661700">
        <ele>800.579</ele>
        <time>2018-12-28T15:54:35Z</time>
      </trkpt>
      <trkpt lat="37.281500" lon="-119.661960">
        <ele>799.168</ele>
        <time>2018-12-28T15:54:55Z</time>
      </trkpt>
      <trkpt lat="37.281490" lon="-119.662070">
        <ele>799.186</ele>
        <time>2018-12-28T15:55:15Z</time>
      </trkpt>
      <trkpt lat="37.281480" lon="-119.662210">
        <ele>798.860</ele>
        <time>2018-12-28T15:55:35Z</time>
      </trkpt>
      <trkpt lat="37.281480" lon="-119.662370">
        <ele>798.826</ele>
        <time>2018-12-28T15:55:55Z</time>
      </trkpt>
      <trkpt lat="37.281480" lon="-119.662560">
        <ele>798.208</ele>
        <time>2018-12-28T15:56:15Z</time>
      </trkpt>
      <trkpt lat="37.281490" lon="-119.662740">
        <ele>797.661</ele>
        <time>2018-12-28T15:56:35Z</time>
      </trkpt>
      <trkpt lat="37.281500" lon="-119.662910">
        <ele>796.899</ele>
        <time>2018-12-28T15:56:55Z</time>
      </trkpt>
      <trkpt lat="37.281530" lon="-119.663110">
        <ele>796.054</ele>
        <time>2018-12-28T15:57:15Z</time>
      </trkpt>
      <trkpt lat="37.281540" lon="-119.663180">
        <ele>795.894</ele>
        <time>2018-12-28T15:57:35Z</time>
      </trkpt>
      <trkpt lat="37.281560" lon="-119.663290">
        <ele>795.328</ele>
        <time>2018-12-28T15:57:55Z</time>
      </trkpt>
      <trkpt lat="37.281600" lon="-119.663470">
        <ele>794.238</ele>
        <time>2018-12-28T15:58:15Z</time>
      </trkpt>
      <trkpt lat="37.281660" lon="-119.663720">
        <ele>792.434</ele>
        <time>2018-12-28T15:58:35Z</time>
      </trkpt>
      <trkpt lat="37.281770" lon="-119.664170">
        <ele>791.763</ele>
        <time>2018-12-28T15:58:55Z</time>
      </trkpt>
      <trkpt lat="37.281900" lon="-119.664690">
        <ele>791.935</ele>
        <time>2018-12-28T15:59:15Z</time>
      </trkpt>
      <trkpt lat="37.281940" lon="-119.664840">
        <ele>791.786</ele>
        <time>2018-12-28T15:59:35Z</time>
      </trkpt>
      <trkpt lat="37.282010" lon="-119.665120">
        <ele>791.814</ele>
        <time>2018-12-28T15:59:55Z</time>
      </trkpt>
      <trkpt lat="37.282070" lon="-119.665370">
        <ele>791.908</ele>
        <time>2018-12-28T16:00:15Z</time>
      </trkpt>
      <trkpt lat="37.282110" lon="-119.665570">
        <ele>792.596</ele>
        <time>2018-12-28T16:00:35Z</time>
      </trkpt>
      <trkpt lat="37.282140" lon="-119.665770">
        <ele>792.644</ele>
        <time>2018-12-28T16:00:55Z</time>
      </trkpt>
      <trkpt lat="37.282160" lon="-119.665930">
        <ele>792.559</ele>
        <time>2018-12-28T16:01:15Z</time>
      </trkpt>
      <trkpt lat="37.282160" lon="-119.666120">
        <ele>791.819</ele>
        <time>2018-12-28T16:01:35Z</time>
      </trkpt>
      <trkpt lat="37.282150" lon="-119.666300">
        <ele>791.453</ele>
        <time>2018-12-28T16:01:55Z</time>
      </trkpt>
      <trkpt lat="37.282120" lon="-119.666500">
        <ele>791.483</ele>
        <time>2018-12-28T16:02:15Z</time>
      </trkpt>
      <trkpt lat="37.282080" lon="-119.666700">
        <ele>790.939</ele>
        <time>2018-12-28T16:02:35Z</time>
      </trkpt>
      <trkpt lat="37.282040" lon="-119.666870">
        <ele>790.548</ele>
        <time>2018-12-28T16:02:55Z</time>
      </trkpt>
      <trkpt lat="37.281980" lon="-119.667070">
        <ele>789.949</ele>
        <time>2018-12-28T16:03:15Z</time>
      </trkpt>
      <trkpt lat="37.281890" lon="-119.667280">
        <ele>788.902</ele>
        <time>2018-12-28T16:03:35Z</time>
      </trkpt>
      <trkpt lat="37.281810" lon="-119.667460">
        <ele>788.022</ele>
        <time>2018-12-28T16:03:55Z</time>
      </trkpt>
      <trkpt lat="37.281730" lon="-119.667620">
        <ele>787.308</ele>
        <time>2018-12-28T16:04:15Z</time>
      </trkpt>
      <trkpt lat="37.281630" lon="-119.667770">
        <ele>786.037</ele>
        <time>2018-12-28T16:04:35Z</time>
      </trkpt>
      <trkpt lat="37.281550" lon="-119.667880">
        <ele>785.065</ele>
        <time>2018-12-28T16:04:55Z</time>
      </trkpt>
      <trkpt lat="37.281400" lon="-119.668070">
        <ele>785.030</ele>
        <time>2018-12-28T16:05:15Z</time>
      </trkpt>
      <trkpt lat="37.281280" lon="-119.668190">
        <ele>785.980</ele>
        <time>2018-12-28T16:05:35Z</time>
      </trkpt>
      <trkpt lat="37.281080" lon="-119.668330">
        <ele>786.974</ele>
        <time>2018-12-28T16:05:55Z</time>
      </trkpt>
      <trkpt lat="37.280740" lon="-119.668520">
        <ele>786.934</ele>
        <time>2018-12-28T16:06:15Z</time>
      </trkpt>
      <trkpt lat="37.280470" lon="-119.668620">
        <ele>786.350</ele>
        <time>2018-12-28T16:06:35Z</time>
      </trkpt>
      <trkpt lat="37.280370" lon="-119.668650">
        <ele>786.179</ele>
        <time>2018-12-28T16:06:55Z</time>
      </trkpt>
      <trkpt lat="37.280250" lon="-119.668670">
        <ele>785.616</ele>
        <time>2018-12-28T16:07:15Z</time>
      </trkpt>
      <trkpt lat="37.280080" lon="-119.668680">
        <ele>785.076</ele>
        <time>2018-12-28T16:07:35Z</time>
      </trkpt>
      <trkpt lat="37.279900" lon="-119.668680">
        <ele>784.813</ele>
        <time>2018-12-28T16:07:55Z</time>
      </trkpt>
      <trkpt lat="37.279760" lon="-119.668660">
        <ele>784.408</ele>
        <time>2018-12-28T16:08:15Z</time>
      </trkpt>
      <trkpt lat="37.279610" lon="-119.668630">
        <ele>783.924</ele>
        <time>2018-12-28T16:08:35Z</time>
      </trkpt>
      <trkpt lat="37.279480" lon="-119.668590">
        <ele>782.532</ele>
        <time>2018-12-28T16:08:55Z</time>
      </trkpt>
      <trkpt lat="37.279330" lon="-119.668530">
        <ele>781.047</ele>
        <time>2018-12-28T16:09:15Z</time>
      </trkpt>
      <trkpt lat="37.279050" lon="-119.668410">
        <ele>779.747</ele>
        <time>2018-12-28T16:09:35Z</time>
      </trkpt>
      <trkpt lat="37.278470" lon="-119.668140">
        <ele>778.891</ele>
        <time>2018-12-28T16:09:55Z</time>
      </trkpt>
      <trkpt lat="37.278010" lon="-119.667930">
        <ele>778.881</ele>
        <time>2018-12-28T16:10:15Z</time>
      </trkpt>
      <trkpt lat="37.277780" lon="-119.667830">
        <ele>778.647</ele>
        <time>2018-12-28T16:10:35Z</time>
      </trkpt>
      <trkpt lat="37.277180" lon="-119.667610">
        <ele>778.596</ele>
        <time>2018-12-28T16:10:55Z</time>
      </trkpt>
      <trkpt lat="37.276860" lon="-119.667510">
        <ele>778.418</ele>
        <time>2018-12-28T16:11:15Z</time>
      </trkpt>
      <trkpt lat="37.276340" lon="-119.667360">
        <ele>777.398</ele>
        <time>2018-12-28T16:11:35Z</time>
      </trkpt>
      <trkpt lat="37.275640" lon="-119.667150">
        <ele>772.617</ele>
        <time>2018-12-28T16:11:55Z</time>
      </trkpt>
      <trkpt lat="37.275250" lon="-119.667050">
        <ele>772.008</ele>
        <time>2018-12-28T16:12:15Z</time>
      </trkpt>
      <trkpt lat="37.275070" lon="-119.667000">
        <ele>771.834</ele>
        <time>2018-12-28T16:12:35Z</time>
      </trkpt>
      <trkpt lat="37.274850" lon="-119.666940">
        <ele>771.422</ele>
        <time>2018-12-28T16:12:55Z</time>
      </trkpt>
      <trkpt lat="37.274640" lon="-119.666900">
        <ele>770.827</ele>
        <time>2018-12-28T16:13:15Z</time>
      </trkpt>
      <trkpt lat="37.274460" lon="-119.666880">
        <ele>768.967</ele>
        <time>2018-12-28T16:13:35Z</time>
      </trkpt>
      <trkpt lat="37.274280" lon="-119.666880">
        <ele>766.741</ele>
        <time>2018-12-28T16:13:55Z</time>
      </trkpt>
      <trkpt lat="37.274110" lon="-119.666900">
        <ele>765.451</ele>
        <time>2018-12-28T16:14:15Z</time>
      </trkpt>
      <trkpt lat="37.273940" lon="-119.666930">
        <ele>764.227</ele>
        <time>2018-12-28T16:14:35Z</time>
      </trkpt>
      <trkpt lat="37.273780" lon="-119.666960">
        <ele>762.716</ele>
        <time>2018-12-28T16:14:55Z</time>
      </trkpt>
      <trkpt lat="37.273620" lon="-119.667010">
        <ele>761.633</ele>
        <time>2018-12-28T16:15:15Z</time>
      </trkpt>
      <trkpt lat="37.273460" lon="-119.667080">
        <ele>760.523</ele>
        <time>2018-12-28T16:15:35Z</time>
      </trkpt>
      <trkpt lat="37.273260" lon="-119.667190">
        <ele>757.715</ele>
        <time>2018-12-28T16:15:55Z</time>
      </trkpt>
      <trkpt lat="37.273050" lon="-119.667310">
        <ele>754.308</ele>
        <time>2018-12-28T16:16:15Z</time>
      </trkpt>
      <trkpt lat="37.272830" lon="-119.667480">
        <ele>753.716</ele>
        <time>2018-12-28T16:16:35Z</time>
      </trkpt>
      <trkpt lat="37.272730" lon="-119.667570">
        <ele>754.724</ele>
        <time>2018-12-28T16:16:55Z</time>
      </trkpt>
      <trkpt lat="37.272620" lon="-119.667680">
        <ele>753.749</ele>
        <time>2018-12-28T16:17:15Z</time>
      </trkpt>
      <trkpt lat="37.272440" lon="-119.667910">
        <ele>754.729</ele>
        <time>2018-12-28T16:17:35Z</time>
      </trkpt>
      <trkpt lat="37.272230" lon="-119.668210">
        <ele>755.123</ele>
        <time>2018-12-28T16:17:55Z</time>
      </trkpt>
      <trkpt lat="37.271950" lon="-119.668610">
        <ele>752.433</ele>
        <time>2018-12-28T16:18:15Z</time>
      </trkpt>
      <trkpt lat="37.271710" lon="-119.668980">
        <ele>749.119</ele>
        <time>2018-12-28T16:18:35Z</time>
      </trkpt>
      <trkpt lat="37.271540" lon="-119.669240">
        <ele>747.678</ele>
        <time>2018-12-28T16:18:55Z</time>
      </trkpt>
      <trkpt lat="37.271270" lon="-119.669650">
        <ele>744.085</ele>
        <time>2018-12-28T16:19:15Z</time>
      </trkpt>
      <trkpt lat="37.271100" lon="-119.669920">
        <ele>743.289</ele>
        <time>2018-12-28T16:19:35Z</time>
      </trkpt>
      <trkpt lat="37.270940" lon="-119.670200">
        <ele>741.917</ele>
        <time>2018-12-28T16:19:55Z</time>
      </trkpt>
      <trkpt lat="37.270810" lon="-119.670460">
        <ele>742.208</ele>
        <time>2018-12-28T16:20:15Z</time>
      </trkpt>
      <trkpt lat="37.270720" lon="-119.670660">
        <ele>741.471</ele>
        <time>2018-12-28T16:20:35Z</time>
      </trkpt>
      <trkpt lat="37.270510" lon="-119.671130">
        <ele>741.249</ele>
        <time>2018-12-28T16:20:55Z</time>
      </trkpt>
      <trkpt lat="37.270300" lon="-119.671640">
        <ele>740.444</ele>
        <time>2018-12-28T16:21:15Z</time>
      </trkpt>
      <trkpt lat="37.270180" lon="-119.671890">
        <ele>739.214</ele>
        <time>2018-12-28T16:21:35Z</time>
      </trkpt>
      <trkpt lat="37.270020" lon="-119.672220">
        <ele>737.578</ele>
        <time>2018-12-28T16:21:55Z</time>
      </trkpt>
      <trkpt lat="37.269850" lon="-119.672520">
        <ele>735.268</ele>
        <time>2018-12-28T16:22:15Z</time>
      </trkpt>
      <trkpt lat="37.269700" lon="-119.672760">
        <ele>733.034</ele>
        <time>2018-12-28T16:22:35Z</time>
      </trkpt>
      <trkpt lat="37.269520" lon="-119.673020">
        <ele>731.093</ele>
        <time>2018-12-28T16:22:55Z</time>
      </trkpt>
      <trkpt lat="37.269310" lon="-119.673270">
        <ele>730.134</ele>
        <time>2018-12-28T16:23:15Z</time>
      </trkpt>
      <trkpt lat="37.269090" lon="-119.673500">
        <ele>730.155</ele>
        <time>2018-12-28T16:23:35Z</time>
      </trkpt>
      <trkpt lat="37.268870" lon="-119.673690">
        <ele>730.210</ele>
        <time>2018-12-28T16:23:55Z</time>
      </trkpt>
      <trkpt lat="37.268630" lon="-119.673880">
        <ele>729.908</ele>
        <time>2018-12-28T16:24:15Z</time>
      </trkpt>
      <trkpt lat="37.268260" lon="-119.674140">
        <ele>729.526</ele>
        <time>2018-12-28T16:24:35Z</time>
      </trkpt>
      <trkpt lat="37.267750" lon="-119.674480">
        <ele>730.074</ele>
        <time>2018-12-28T16:24:55Z</time>
      </trkpt>
      <trkpt lat="37.267180" lon="-119.674860">
        <ele>726.629</ele>
        <time>2018-12-28T16:25:15Z</time>
      </trkpt>
      <trkpt lat="37.266330" lon="-119.675430">
        <ele>723.019</ele>
        <time>2018-12-28T16:25:35Z</time>
      </trkpt>
      <trkpt lat="37.265950" lon="-119.675670">
        <ele>719.113</ele>
        <time>2018-12-28T16:25:55Z</time>
      </trkpt>
      <trkpt lat="37.265780" lon="-119.675800">
        <ele>718.063</ele>
        <time>2018-12-28T16:26:15Z</time>
      </trkpt>
      <trkpt lat="37.265660" lon="-119.675900">
        <ele>718.119</ele>
        <time>2018-12-28T16:26:35Z</time>
      </trkpt>
      <trkpt lat="37.265530" lon="-119.676030">
        <ele>718.178</ele>
        <time>2018-12-28T16:26:55Z</time>
      </trkpt>
      <trkpt lat="37.265370" lon="-119.676180">
        <ele>717.353</ele>
        <time>2018-12-28T16:27:15Z</time>
      </trkpt>
      <trkpt lat="37.265230" lon="-119.676360">
        <ele>714.704</ele>
        <time>2018-12-28T16:27:35Z</time>
      </trkpt>
      <trkpt lat="37.265050" lon="-119.676600">
        <ele>712.414</ele>
        <time>2018-12-28T16:27:55Z</time>
      </trkpt>
      <trkpt lat="37.264960" lon="-119.676740">
        <ele>714.608</ele>
        <time>2018-12-28T16:28:15Z</time>
      </trkpt>
      <trkpt lat="37.264830" lon="-119.676970">
        <ele>716.418</ele>
        <time>2018-12-28T16:28:35Z</time>
      </trkpt>
      <trkpt lat="37.264710" lon="-119.677210">
        <ele>717.236</ele>
        <time>2018-12-28T16:28:55Z</time>
      </trkpt>
      <trkpt lat="37.264540" lon="-119.677590">
        <ele>716.531</ele>
        <time>2018-12-28T16:29:15Z</time>
      </trkpt>
      <trkpt lat="37.264460" lon="-119.677850">
        <ele>716.181</ele>
        <time>2018-12-28T16:29:35Z</time>
      </trkpt>
      <trkpt lat="37.264370" lon="-119.678250">
        <ele>714.345</ele>
        <time>2018-12-28T16:29:55Z</time>
      </trkpt>
      <trkpt lat="37.264320" lon="-119.678570">
        <ele>712.715</ele>
        <time>2018-12-28T16:30:15Z</time>
      </trkpt>
      <trkpt lat="37.264270" lon="-119.679020">
        <ele>711.961</ele>
        <time>2018-12-28T16:30:35Z</time>
      </trkpt>
      <trkpt lat="37.264210" lon="-119.679580">
        <ele>711.790</ele>
        <time>2018-12-28T16:30:55Z</time>
      </trkpt>
      <trkpt lat="37.264150" lon="-119.680320">
        <ele>710.523</ele>
        <time>2018-12-28T16:31:15Z</time>
      </trkpt>
      <trkpt lat="37.264060" lon="-119.681330">
        <ele>706.983</ele>
        <time>2018-12-28T16:31:35Z</time>
      </trkpt>
      <trkpt lat="37.263880" lon="-119.683230">
        <ele>708.511</ele>
        <time>2018-12-28T16:31:55Z</time>
      </trkpt>
      <trkpt lat="37.263840" lon="-119.683820">
        <ele>707.408</ele>
        <time>2018-12-28T16:32:15Z</time>
      </trkpt>
      <trkpt lat="37.263820" lon="-119.684210">
        <ele>707.045</ele>
        <time>2018-12-28T16:32:35Z</time>
      </trkpt>
      <trkpt lat="37.263800" lon="-119.684560">
        <ele>705.663</ele>
        <time>2018-12-28T16:32:55Z</time>
      </trkpt>
      <trkpt lat="37.263790" lon="-119.684900">
        <ele>702.688</ele>
        <time>2018-12-28T16:33:15Z</time>
      </trkpt>
      <trkpt lat="37.263800" lon="-119.685060">
        <ele>701.568</ele>
        <time>2018-12-28T16:33:35Z</time>
      </trkpt>
      <trkpt lat="37.263790" lon="-119.685710">
        <ele>698.072</ele>
        <time>2018-12-28T16:33:55Z</time>
      </trkpt>
      <trkpt lat="37.263810" lon="-119.686330">
        <ele>694.962</ele>
        <time>2018-12-28T16:34:15Z</time>
      </trkpt>
      <trkpt lat="37.263820" lon="-119.686690">
        <ele>694.128</ele>
        <time>2018-12-28T16:34:35Z</time>
      </trkpt>
      <trkpt lat="37.263970" lon="-119.689070">
        <ele>690.497</ele>
        <time>2018-12-28T16:34:55Z</time>
      </trkpt>
      <trkpt lat="37.264010" lon="-119.689650">
        <ele>688.787</ele>
        <time>2018-12-28T16:35:15Z</time>
      </trkpt>
      <trkpt lat="37.264040" lon="-119.690070">
        <ele>687.542</ele>
        <time>2018-12-28T16:35:35Z</time>
      </trkpt>
      <trkpt lat="37.264050" lon="-119.690420">
        <ele>687.026</ele>
        <time>2018-12-28T16:35:55Z</time>
      </trkpt>
      <trkpt lat="37.264050" lon="-119.690680">
        <ele>686.908</ele>
        <time>2018-12-28T16:36:15Z</time>
      </trkpt>
      <trkpt lat="37.264040" lon="-119.690970">
        <ele>686.571</ele>
        <time>2018-12-28T16:36:35Z</time>
      </trkpt>
      <trkpt lat="37.264030" lon="-119.691320">
        <ele>686.549</ele>
        <time>2018-12-28T16:36:55Z</time>
      </trkpt>
      <trkpt lat="37.264000" lon="-119.691560">
        <ele>686.264</ele>
        <time>2018-12-28T16:37:15Z</time>
      </trkpt>
      <trkpt lat="37.263990" lon="-119.691700">
        <ele>686.064</ele>
        <time>2018-12-28T16:37:35Z</time>
      </trkpt>
      <trkpt lat="37.263970" lon="-119.691830">
        <ele>685.548</ele>
        <time>2018-12-28T16:37:55Z</time>
      </trkpt>
      <trkpt lat="37.263930" lon="-119.692100">
        <ele>683.538</ele>
        <time>2018-12-28T16:38:15Z</time>
      </trkpt>
      <trkpt lat="37.263870" lon="-119.692380">
        <ele>681.644</ele>
        <time>2018-12-28T16:38:35Z</time>
      </trkpt>
      <trkpt lat="37.263810" lon="-119.692660">
        <ele>680.033</ele>
        <time>2018-12-28T16:38:55Z</time>
      </trkpt>
      <trkpt lat="37.263730" lon="-119.692960">
        <ele>679.841</ele>
        <time>2018-12-28T16:39:15Z</time>
      </trkpt>
      <trkpt lat="37.263650" lon="-119.693230">
        <ele>680.181</ele>
        <time>2018-12-28T16:39:35Z</time>
      </trkpt>
      <trkpt lat="37.263540" lon="-119.693550">
        <ele>679.009</ele>
        <time>2018-12-28T16:39:55Z</time>
      </trkpt>
      <trkpt lat="37.263260" lon="-119.694340">
        <ele>677.908</ele>
        <time>2018-12-28T16:40:15Z</time>
      </trkpt>
      <trkpt lat="37.263110" lon="-119.694790">
        <ele>677.937</ele>
        <time>2018-12-28T16:40:35Z</time>
      </trkpt>
      <trkpt lat="37.263020" lon="-119.695090">
        <ele>679.475</ele>
        <time>2018-12-28T16:40:55Z</time>
      </trkpt>
      <trkpt lat="37.262920" lon="-119.695480">
        <ele>680.360</ele>
        <time>2018-12-28T16:41:15Z</time>
      </trkpt>
      <trkpt lat="37.262830" lon="-119.695900">
        <ele>681.350</ele>
        <time>2018-12-28T16:41:35Z</time>
      </trkpt>
      <trkpt lat="37.262770" lon="-119.696220">
        <ele>680.564</ele>
        <time>2018-12-28T16:41:55Z</time>
      </trkpt>
      <trkpt lat="37.262720" lon="-119.696480">
        <ele>679.354</ele>
        <time>2018-12-28T16:42:15Z</time>
      </trkpt>
      <trkpt lat="37.262660" lon="-119.696840">
        <ele>677.620</ele>
        <time>2018-12-28T16:42:35Z</time>
      </trkpt>
      <trkpt lat="37.262600" lon="-119.697320">
        <ele>676.499</ele>
        <time>2018-12-28T16:42:55Z</time>
      </trkpt>
      <trkpt lat="37.262500" lon="-119.698160">
        <ele>676.941</ele>
        <time>2018-12-28T16:43:15Z</time>
      </trkpt>
      <trkpt lat="37.262470" lon="-119.698330">
        <ele>677.081</ele>
        <time>2018-12-28T16:43:35Z</time>
      </trkpt>
      <trkpt lat="37.262440" lon="-119.698490">
        <ele>676.909</ele>
        <time>2018-12-28T16:43:55Z</time>
      </trkpt>
      <trkpt lat="37.262400" lon="-119.698680">
        <ele>676.708</ele>
        <time>2018-12-28T16:44:15Z</time>
      </trkpt>
      <trkpt lat="37.262360" lon="-119.698880">
        <ele>676.587</ele>
        <time>2018-12-28T16:44:35Z</time>
      </trkpt>
      <trkpt lat="37.262290" lon="-119.699120">
        <ele>676.075</ele>
        <time>2018-12-28T16:44:55Z</time>
      </trkpt>
      <trkpt lat="37.262210" lon="-119.699370">
        <ele>675.480</ele>
        <time>2018-12-28T16:45:15Z</time>
      </trkpt>
      <trkpt lat="37.261810" lon="-119.700400">
        <ele>672.790</ele>
        <time>2018-12-28T16:45:35Z</time>
      </trkpt>
      <trkpt lat="37.261740" lon="-119.700590">
        <ele>671.754</ele>
        <time>2018-12-28T16:45:55Z</time>
      </trkpt>
      <trkpt lat="37.261650" lon="-119.700760">
        <ele>670.594</ele>
        <time>2018-12-28T16:46:15Z</time>
      </trkpt>
      <trkpt lat="37.261580" lon="-119.700900">
        <ele>669.440</ele>
        <time>2018-12-28T16:46:35Z</time>
      </trkpt>
      <trkpt lat="37.261510" lon="-119.701020">
        <ele>668.349</ele>
        <time>2018-12-28T16:46:55Z</time>
      </trkpt>
      <trkpt lat="37.261430" lon="-119.701120">
        <ele>667.551</ele>
        <time>2018-12-28T16:47:15Z</time>
      </trkpt>
      <trkpt lat="37.261360" lon="-119.701230">
        <ele>667.001</ele>
        <time>2018-12-28T16:47:35Z</time>
      </trkpt>
      <trkpt lat="37.261210" lon="-119.701420">
        <ele>666.911</ele>
        <time>2018-12-28T16:47:55Z</time>
      </trkpt>
      <trkpt lat="37.260930" lon="-119.701720">
        <ele>668.608</ele>
        <time>2018-12-28T16:48:15Z</time>
      </trkpt>
      <trkpt lat="37.260800" lon="-119.701860">
        <ele>669.038</ele>
        <time>2018-12-28T16:48:35Z</time>
      </trkpt>
      <trkpt lat="37.260730" lon="-119.701930">
        <ele>669.136</ele>
        <time>2018-12-28T16:48:55Z</time>
      </trkpt>
      <trkpt lat="37.260590" lon="-119.702030">
        <ele>668.781</ele>
        <time>2018-12-28T16:49:15Z</time>
      </trkpt>
      <trkpt lat="37.260390" lon="-119.702180">
        <ele>667.981</ele>
        <time>2018-12-28T16:49:35Z</time>
      </trkpt>
      <trkpt lat="37.260180" lon="-119.702320">
        <ele>667.135</ele>
        <time>2018-12-28T16:49:55Z</time>
      </trkpt>
      <trkpt lat="37.260040" lon="-119.702400">
        <ele>666.665</ele>
        <time>2018-12-28T16:50:15Z</time>
      </trkpt>
      <trkpt lat="37.259830" lon="-119.702520">
        <ele>665.221</ele>
        <time>2018-12-28T16:50:35Z</time>
      </trkpt>
      <trkpt lat="37.259670" lon="-119.702600">
        <ele>666.160</ele>
        <time>2018-12-28T16:50:55Z</time>
      </trkpt>
      <trkpt lat="37.259510" lon="-119.702660">
        <ele>666.688</ele>
        <time>2018-12-28T16:51:15Z</time>
      </trkpt>
      <trkpt lat="37.259370" lon="-119.702700">
        <ele>667.524</ele>
        <time>2018-12-28T16:51:35Z</time>
      </trkpt>
      <trkpt lat="37.259200" lon="-119.702760">
        <ele>668.126</ele>
        <time>2018-12-28T16:51:55Z</time>
      </trkpt>
      <trkpt lat="37.258720" lon="-119.702870">
        <ele>669.008</ele>
        <time>2018-12-28T16:52:15Z</time>
      </trkpt>
      <trkpt lat="37.258560" lon="-119.702920">
        <ele>668.751</ele>
        <time>2018-12-28T16:52:35Z</time>
      </trkpt>
      <trkpt lat="37.258390" lon="-119.702970">
        <ele>668.489</ele>
        <time>2018-12-28T16:52:55Z</time>
      </trkpt>
      <trkpt lat="37.258260" lon="-119.703020">
        <ele>667.824</ele>
        <time>2018-12-28T16:53:15Z</time>
      </trkpt>
      <trkpt lat="37.258100" lon="-119.703080">
        <ele>668.034</ele>
        <time>2018-12-28T16:53:35Z</time>
      </trkpt>
      <trkpt lat="37.257960" lon="-119.703150">
        <ele>668.378</ele>
        <time>2018-12-28T16:53:55Z</time>
      </trkpt>
      <trkpt lat="37.257840" lon="-119.703220">
        <ele>669.148</ele>
        <time>2018-12-28T16:54:15Z</time>
      </trkpt>
      <trkpt lat="37.257710" lon="-119.703290">
        <ele>671.114</ele>
        <time>2018-12-28T16:54:35Z</time>
      </trkpt>
      <trkpt lat="37.257550" lon="-119.703390">
        <ele>674.373</ele>
        <time>2018-12-28T16:54:55Z</time>
      </trkpt>
      <trkpt lat="37.257330" lon="-119.703550">
        <ele>676.839</ele>
        <time>2018-12-28T16:55:15Z</time>
      </trkpt>
      <trkpt lat="37.256880" lon="-119.703840">
        <ele>678.401</ele>
        <time>2018-12-28T16:55:35Z</time>
      </trkpt>
      <trkpt lat="37.256690" lon="-119.703960">
        <ele>677.221</ele>
        <time>2018-12-28T16:55:55Z</time>
      </trkpt>
      <trkpt lat="37.256530" lon="-119.704060">
        <ele>675.708</ele>
        <time>2018-12-28T16:56:15Z</time>
      </trkpt>
      <trkpt lat="37.256360" lon="-119.704150">
        <ele>672.376</ele>
        <time>2018-12-28T16:56:35Z</time>
      </trkpt>
      <trkpt lat="37.256200" lon="-119.704230">
        <ele>669.494</ele>
        <time>2018-12-28T16:56:55Z</time>
      </trkpt>
      <trkpt lat="37.255960" lon="-119.704320">
        <ele>666.779</ele>
        <time>2018-12-28T16:57:15Z</time>
      </trkpt>
      <trkpt lat="37.255670" lon="-119.704410">
        <ele>666.089</ele>
        <time>2018-12-28T16:57:35Z</time>
      </trkpt>
      <trkpt lat="37.255470" lon="-119.704470">
        <ele>666.273</ele>
        <time>2018-12-28T16:57:55Z</time>
      </trkpt>
      <trkpt lat="37.255250" lon="-119.704520">
        <ele>666.223</ele>
        <time>2018-12-28T16:58:15Z</time>
      </trkpt>
      <trkpt lat="37.255090" lon="-119.704550">
        <ele>666.039</ele>
        <time>2018-12-28T16:58:35Z</time>
      </trkpt>
      <trkpt lat="37.254960" lon="-119.704570">
        <ele>665.878</ele>
        <time>2018-12-28T16:58:55Z</time>
      </trkpt>
      <trkpt lat="37.254820" lon="-119.704580">
        <ele>665.631</ele>
        <time>2018-12-28T16:59:15Z</time>
      </trkpt>
      <trkpt lat="37.254640" lon="-119.704580">
        <ele>665.461</ele>
        <time>2018-12-28T16:59:35Z</time>
      </trkpt>
      <trkpt lat="37.254370" lon="-119.704560">
        <ele>664.907</ele>
        <time>2018-12-28T16:59:55Z</time>
      </trkpt>
      <trkpt lat="37.253440" lon="-119.704480">
        <ele>668.708</ele>
        <time>2018-12-28T17:00:15Z</time>
      </trkpt>
      <trkpt lat="37.253180" lon="-119.704460">
        <ele>669.096</ele>
        <time>2018-12-28T17:00:35Z</time>
      </trkpt>
      <trkpt lat="37.252970" lon="-119.704460">
        <ele>669.034</ele>
        <time>2018-12-28T17:00:55Z</time>
      </trkpt>
      <trkpt lat="37.252740" lon="-119.704470">
        <ele>668.229</ele>
        <time>2018-12-28T17:01:15Z</time>
      </trkpt>
      <trkpt lat="37.252560" lon="-119.704490">
        <ele>667.369</ele>
        <time>2018-12-28T17:01:35Z</time>
      </trkpt>
      <trkpt lat="37.252320" lon="-119.704520">
        <ele>665.913</ele>
        <time>2018-12-28T17:01:55Z</time>
      </trkpt>
      <trkpt lat="37.252030" lon="-119.704610">
        <ele>664.243</ele>
        <time>2018-12-28T17:02:15Z</time>
      </trkpt>
      <trkpt lat="37.251830" lon="-119.704690">
        <ele>663.649</ele>
        <time>2018-12-28T17:02:35Z</time>
      </trkpt>
      <trkpt lat="37.251670" lon="-119.704760">
        <ele>664.188</ele>
        <time>2018-12-28T17:02:55Z</time>
      </trkpt>
      <trkpt lat="37.251530" lon="-119.704810">
        <ele>665.147</ele>
        <time>2018-12-28T17:03:15Z</time>
      </trkpt>
      <trkpt lat="37.251440" lon="-119.704850">
        <ele>666.129</ele>
        <time>2018-12-28T17:03:35Z</time>
      </trkpt>
      <trkpt lat="37.251190" lon="-119.704980">
        <ele>669.121</ele>
        <time>2018-12-28T17:03:55Z</time>
      </trkpt>
      <trkpt lat="37.250970" lon="-119.705090">
        <ele>672.108</ele>
        <time>2018-12-28T17:04:15Z</time>
      </trkpt>
      <trkpt lat="37.250840" lon="-119.705150">
        <ele>673.757</ele>
        <time>2018-12-28T17:04:35Z</time>
      </trkpt>
      <trkpt lat="37.250670" lon="-119.705220">
        <ele>675.795</ele>
        <time>2018-12-28T17:04:55Z</time>
      </trkpt>
      <trkpt lat="37.250450" lon="-119.705300">
        <ele>677.940</ele>
        <time>2018-12-28T17:05:15Z</time>
      </trkpt>
      <trkpt lat="37.250210" lon="-119.705360">
        <ele>679.080</ele>
        <time>2018-12-28T17:05:35Z</time>
      </trkpt>
      <trkpt lat="37.249990" lon="-119.705410">
        <ele>679.054</ele>
        <time>2018-12-28T17:05:55Z</time>
      </trkpt>
      <trkpt lat="37.249690" lon="-119.705450">
        <ele>677.944</ele>
        <time>2018-12-28T17:06:15Z</time>
      </trkpt>
      <trkpt lat="37.249400" lon="-119.705460">
        <ele>676.840</ele>
        <time>2018-12-28T17:06:35Z</time>
      </trkpt>
      <trkpt lat="37.249200" lon="-119.705460">
        <ele>676.749</ele>
        <time>2018-12-28T17:06:55Z</time>
      </trkpt>
      <trkpt lat="37.248990" lon="-119.705440">
        <ele>677.385</ele>
        <time>2018-12-28T17:07:15Z</time>
      </trkpt>
      <trkpt lat="37.248770" lon="-119.705400">
        <ele>678.589</ele>
        <time>2018-12-28T17:07:35Z</time>
      </trkpt>
      <trkpt lat="37.248530" lon="-119.705350">
        <ele>679.517</ele>
        <time>2018-12-28T17:07:55Z</time>
      </trkpt>
      <trkpt lat="37.248230" lon="-119.705280">
        <ele>679.708</ele>
        <time>2018-12-28T17:08:15Z</time>
      </trkpt>
      <trkpt lat="37.247950" lon="-119.705210">
        <ele>679.411</ele>
        <time>2018-12-28T17:08:35Z</time>
      </trkpt>
      <trkpt lat="37.247750" lon="-119.705170">
        <ele>680.279</ele>
        <time>2018-12-28T17:08:55Z</time>
      </trkpt>
      <trkpt lat="37.247540" lon="-119.705140">
        <ele>680.644</ele>
        <time>2018-12-28T17:09:15Z</time>
      </trkpt>
      <trkpt lat="37.247210" lon="-119.705110">
        <ele>682.254</ele>
        <time>2018-12-28T17:09:35Z</time>
      </trkpt>
      <trkpt lat="37.246940" lon="-119.705100">
        <ele>684.648</ele>
        <time>2018-12-28T17:09:55Z</time>
      </trkpt>
      <trkpt lat="37.246750" lon="-119.705100">
        <ele>685.518</ele>
        <time>2018-12-28T17:10:15Z</time>
      </trkpt>
      <trkpt lat="37.246470" lon="-119.705120">
        <ele>686.814</ele>
        <time>2018-12-28T17:10:35Z</time>
      </trkpt>
      <trkpt lat="37.246100" lon="-119.705180">
        <ele>688.853</ele>
        <time>2018-12-28T17:10:55Z</time>
      </trkpt>
      <trkpt lat="37.245810" lon="-119.705240">
        <ele>690.276</ele>
        <time>2018-12-28T17:11:15Z</time>
      </trkpt>
      <trkpt lat="37.245410" lon="-119.705380">
        <ele>688.990</ele>
        <time>2018-12-28T17:11:35Z</time>
      </trkpt>
      <trkpt lat="37.245030" lon="-119.705540">
        <ele>687.819</ele>
        <time>2018-12-28T17:11:55Z</time>
      </trkpt>
      <trkpt lat="37.244670" lon="-119.705710">
        <ele>686.308</ele>
        <time>2018-12-28T17:12:15Z</time>
      </trkpt>
      <trkpt lat="37.244150" lon="-119.706040">
        <ele>681.630</ele>
        <time>2018-12-28T17:12:35Z</time>
      </trkpt>
      <trkpt lat="37.243750" lon="-119.706300">
        <ele>678.178</ele>
        <time>2018-12-28T17:12:55Z</time>
      </trkpt>
      <trkpt lat="37.242810" lon="-119.706970">
        <ele>674.393</ele>
        <time>2018-12-28T17:13:15Z</time>
      </trkpt>
      <trkpt lat="37.242630" lon="-119.707090">
        <ele>675.793</ele>
        <time>2018-12-28T17:13:35Z</time>
      </trkpt>
      <trkpt lat="37.242300" lon="-119.707250">
        <ele>675.767</ele>
        <time>2018-12-28T17:13:55Z</time>
      </trkpt>
      <trkpt lat="37.242140" lon="-119.707330">
        <ele>672.577</ele>
        <time>2018-12-28T17:14:15Z</time>
      </trkpt>
      <trkpt lat="37.241990" lon="-119.707390">
        <ele>671.323</ele>
        <time>2018-12-28T17:14:35Z</time>
      </trkpt>
      <trkpt lat="37.241870" lon="-119.707430">
        <ele>671.642</ele>
        <time>2018-12-28T17:14:55Z</time>
      </trkpt>
      <trkpt lat="37.241730" lon="-119.707470">
        <ele>670.886</ele>
        <time>2018-12-28T17:15:15Z</time>
      </trkpt>
      <trkpt lat="37.241540" lon="-119.707520">
        <ele>668.760</ele>
        <time>2018-12-28T17:15:35Z</time>
      </trkpt>
      <trkpt lat="37.241360" lon="-119.707550">
        <ele>667.326</ele>
        <time>2018-12-28T17:15:55Z</time>
      </trkpt>
      <trkpt lat="37.241260" lon="-119.707560">
        <ele>666.608</ele>
        <time>2018-12-28T17:16:15Z</time>
      </trkpt>
      <trkpt lat="37.241130" lon="-119.707570">
        <ele>666.131</ele>
        <time>2018-12-28T17:16:35Z</time>
      </trkpt>
      <trkpt lat="37.240880" lon="-119.707580">
        <ele>665.499</ele>
        <time>2018-12-28T17:16:55Z</time>
      </trkpt>
      <trkpt lat="37.240720" lon="-119.707570">
        <ele>665.544</ele>
        <time>2018-12-28T17:17:15Z</time>
      </trkpt>
      <trkpt lat="37.240590" lon="-119.707570">
        <ele>665.464</ele>
        <time>2018-12-28T17:17:35Z</time>
      </trkpt>
      <trkpt lat="37.240440" lon="-119.707550">
        <ele>665.288</ele>
        <time>2018-12-28T17:17:55Z</time>
      </trkpt>
      <trkpt lat="37.239960" lon="-119.707470">
        <ele>661.738</ele>
        <time>2018-12-28T17:18:15Z</time>
      </trkpt>
      <trkpt lat="37.239530" lon="-119.707380">
        <ele>659.024</ele>
        <time>2018-12-28T17:18:35Z</time>
      </trkpt>
      <trkpt lat="37.237100" lon="-119.706850">
        <ele>647.253</ele>
        <time>2018-12-28T17:18:55Z</time>
      </trkpt>
      <trkpt lat="37.236240" lon="-119.706660">
        <ele>645.289</ele>
        <time>2018-12-28T17:19:15Z</time>
      </trkpt>
      <trkpt lat="37.235720" lon="-119.706550">
        <ele>644.906</ele>
        <time>2018-12-28T17:19:35Z</time>
      </trkpt>
      <trkpt lat="37.235420" lon="-119.706480">
        <ele>645.526</ele>
        <time>2018-12-28T17:19:55Z</time>
      </trkpt>
      <trkpt lat="37.235170" lon="-119.706440">
        <ele>645.808</ele>
        <time>2018-12-28T17:20:15Z</time>
      </trkpt>
      <trkpt lat="37.234990" lon="-119.706420">
        <ele>645.871</ele>
        <time>2018-12-28T17:20:35Z</time>
      </trkpt>
      <trkpt lat="37.234840" lon="-119.706400">
        <ele>645.869</ele>
        <time>2018-12-28T17:20:55Z</time>
      </trkpt>
      <trkpt lat="37.234690" lon="-119.706400">
        <ele>645.544</ele>
        <time>2018-12-28T17:21:15Z</time>
      </trkpt>
      <trkpt lat="37.234380" lon="-119.706400">
        <ele>646.184</ele>
        <time>2018-12-28T17:21:35Z</time>
      </trkpt>
      <trkpt lat="37.234050" lon="-119.706430">
        <ele>646.088</ele>
        <time>2018-12-28T17:21:55Z</time>
      </trkpt>
      <trkpt lat="37.233790" lon="-119.706480">
        <ele>643.768</ele>
        <time>2018-12-28T17:22:15Z</time>
      </trkpt>
      <trkpt lat="37.233600" lon="-119.706520">
        <ele>641.314</ele>
        <time>2018-12-28T17:22:35Z</time>
      </trkpt>
      <trkpt lat="37.233400" lon="-119.706570">
        <ele>639.653</ele>
        <time>2018-12-28T17:22:55Z</time>
      </trkpt>
      <trkpt lat="37.233140" lon="-119.706660">
        <ele>638.026</ele>
        <time>2018-12-28T17:23:15Z</time>
      </trkpt>
      <trkpt lat="37.232280" lon="-119.707000">
        <ele>630.847</ele>
        <time>2018-12-28T17:23:35Z</time>
      </trkpt>
      <trkpt lat="37.231800" lon="-119.707210">
        <ele>629.811</ele>
        <time>2018-12-28T17:23:55Z</time>
      </trkpt>
      <trkpt lat="37.231470" lon="-119.707340">
        <ele>627.708</ele>
        <time>2018-12-28T17:24:15Z</time>
      </trkpt>
      <trkpt lat="37.231020" lon="-119.707490">
        <ele>627.295</ele>
        <time>2018-12-28T17:24:35Z</time>
      </trkpt>
      <trkpt lat="37.230830" lon="-119.707540">
        <ele>626.963</ele>
        <time>2018-12-28T17:24:55Z</time>
      </trkpt>
      <trkpt lat="37.230650" lon="-119.707590">
        <ele>626.658</ele>
        <time>2018-12-28T17:25:15Z</time>
      </trkpt>
      <trkpt lat="37.230460" lon="-119.707630">
        <ele>626.638</ele>
        <time>2018-12-28T17:25:35Z</time>
      </trkpt>
      <trkpt lat="37.230110" lon="-119.707670">
        <ele>627.682</ele>
        <time>2018-12-28T17:25:55Z</time>
      </trkpt>
      <trkpt lat="37.228570" lon="-119.707670">
        <ele>615.992</ele>
        <time>2018-12-28T17:26:15Z</time>
      </trkpt>
      <trkpt lat="37.225050" lon="-119.707630">
        <ele>593.368</ele>
        <time>2018-12-28T17:26:35Z</time>
      </trkpt>
      <trkpt lat="37.223680" lon="-119.707620">
        <ele>585.697</ele>
        <time>2018-12-28T17:26:55Z</time>
      </trkpt>
      <trkpt lat="37.223330" lon="-119.707610">
        <ele>583.772</ele>
        <time>2018-12-28T17:27:15Z</time>
      </trkpt>
      <trkpt lat="37.222660" lon="-119.707580">
        <ele>583.113</ele>
        <time>2018-12-28T17:27:35Z</time>
      </trkpt>
      <trkpt lat="37.222300" lon="-119.707580">
        <ele>583.414</ele>
        <time>2018-12-28T17:27:55Z</time>
      </trkpt>
      <trkpt lat="37.222090" lon="-119.707580">
        <ele>583.908</ele>
        <time>2018-12-28T17:28:15Z</time>
      </trkpt>
      <trkpt lat="37.221930" lon="-119.707590">
        <ele>583.670</ele>
        <time>2018-12-28T17:28:35Z</time>
      </trkpt>
      <trkpt lat="37.221800" lon="-119.707600">
        <ele>583.388</ele>
        <time>2018-12-28T17:28:55Z</time>
      </trkpt>
      <trkpt lat="37.221650" lon="-119.707610">
        <ele>581.693</ele>
        <time>2018-12-28T17:29:15Z</time>
      </trkpt>
      <trkpt lat="37.221290" lon="-119.707640">
        <ele>579.113</ele>
        <time>2018-12-28T17:29:35Z</time>
      </trkpt>
      <trkpt lat="37.220950" lon="-119.707670">
        <ele>578.797</ele>
        <time>2018-12-28T17:29:55Z</time>
      </trkpt>
      <trkpt lat="37.220320" lon="-119.707730">
        <ele>574.687</ele>
        <time>2018-12-28T17:30:15Z</time>
      </trkpt>
      <trkpt lat="37.218750" lon="-119.707810">
        <ele>577.113</ele>
        <time>2018-12-28T17:30:35Z</time>
      </trkpt>
      <trkpt lat="37.217630" lon="-119.707890">
        <ele>577.312</ele>
        <time>2018-12-28T17:30:55Z</time>
      </trkpt>
      <trkpt lat="37.217290" lon="-119.707930">
        <ele>574.445</ele>
        <time>2018-12-28T17:31:15Z</time>
      </trkpt>
      <trkpt lat="37.216360" lon="-119.708020">
        <ele>569.547</ele>
        <time>2018-12-28T17:31:35Z</time>
      </trkpt>
      <trkpt lat="37.216050" lon="-119.708040">
        <ele>568.711</ele>
        <time>2018-12-28T17:31:55Z</time>
      </trkpt>
      <trkpt lat="37.215220" lon="-119.708120">
        <ele>564.208</ele>
        <time>2018-12-28T17:32:15Z</time>
      </trkpt>
      <trkpt lat="37.214810" lon="-119.708190">
        <ele>563.077</ele>
        <time>2018-12-28T17:32:35Z</time>
      </trkpt>
      <trkpt lat="37.214490" lon="-119.708280">
        <ele>561.575</ele>
        <time>2018-12-28T17:32:55Z</time>
      </trkpt>
      <trkpt lat="37.214010" lon="-119.708410">
        <ele>559.220</ele>
        <time>2018-12-28T17:33:15Z</time>
      </trkpt>
      <trkpt lat="37.213970" lon="-119.708420">
        <ele>559.270</ele>
        <time>2018-12-28T17:33:35Z</time>
      </trkpt>
      <trkpt lat="37.213640" lon="-119.708530">
        <ele>559.084</ele>
        <time>2018-12-28T17:33:55Z</time>
      </trkpt>
      <trkpt lat="37.213190" lon="-119.708740">
        <ele>557.774</ele>
        <time>2018-12-28T17:34:15Z</time>
      </trkpt>
      <trkpt lat="37.212670" lon="-119.708950">
        <ele>554.520</ele>
        <time>2018-12-28T17:34:35Z</time>
      </trkpt>
      <trkpt lat="37.212570" lon="-119.709000">
        <ele>553.789</ele>
        <time>2018-12-28T17:34:55Z</time>
      </trkpt>
      <trkpt lat="37.212390" lon="-119.709090">
        <ele>552.032</ele>
        <time>2018-12-28T17:35:15Z</time>
      </trkpt>
      <trkpt lat="37.212210" lon="-119.709180">
        <ele>551.292</ele>
        <time>2018-12-28T17:35:35Z</time>
      </trkpt>
      <trkpt lat="37.211650" lon="-119.709530">
        <ele>554.311</ele>
        <time>2018-12-28T17:35:55Z</time>
      </trkpt>
      <trkpt lat="37.211430" lon="-119.709680">
        <ele>556.108</ele>
        <time>2018-12-28T17:36:15Z</time>
      </trkpt>
      <trkpt lat="37.211160" lon="-119.709860">
        <ele>557.386</ele>
        <time>2018-12-28T17:36:35Z</time>
      </trkpt>
      <trkpt lat="37.210910" lon="-119.710050">
        <ele>558.164</ele>
        <time>2018-12-28T17:36:55Z</time>
      </trkpt>
      <trkpt lat="37.210760" lon="-119.710160">
        <ele>559.749</ele>
        <time>2018-12-28T17:37:15Z</time>
      </trkpt>
      <trkpt lat="37.210480" lon="-119.710390">
        <ele>562.269</ele>
        <time>2018-12-28T17:37:35Z</time>
      </trkpt>
      <trkpt lat="37.210210" lon="-119.710630">
        <ele>565.883</ele>
        <time>2018-12-28T17:37:55Z</time>
      </trkpt>
      <trkpt lat="37.209960" lon="-119.710860">
        <ele>566.253</ele>
        <time>2018-12-28T17:38:15Z</time>
      </trkpt>
      <trkpt lat="37.208580" lon="-119.712270">
        <ele>565.819</ele>
        <time>2018-12-28T17:38:35Z</time>
      </trkpt>
      <trkpt lat="37.207970" lon="-119.712880">
        <ele>563.528</ele>
        <time>2018-12-28T17:38:55Z</time>
      </trkpt>
      <trkpt lat="37.206850" lon="-119.714030">
        <ele>565.465</ele>
        <time>2018-12-28T17:39:15Z</time>
      </trkpt>
      <trkpt lat="37.206710" lon="-119.714180">
        <ele>563.068</ele>
        <time>2018-12-28T17:39:35Z</time>
      </trkpt>
      <trkpt lat="37.206630" lon="-119.714270">
        <ele>562.214</ele>
        <time>2018-12-28T17:39:55Z</time>
      </trkpt>
      <trkpt lat="37.206540" lon="-119.714360">
        <ele>562.008</ele>
        <time>2018-12-28T17:40:15Z</time>
      </trkpt>
      <trkpt lat="37.206450" lon="-119.714460">
        <ele>561.629</ele>
        <time>2018-12-28T17:40:35Z</time>
      </trkpt>
      <trkpt lat="37.206350" lon="-119.714570">
        <ele>561.487</ele>
        <time>2018-12-28T17:40:55Z</time>
      </trkpt>
      <trkpt lat="37.206280" lon="-119.714660">
        <ele>561.492</ele>
        <time>2018-12-28T17:41:15Z</time>
      </trkpt>
      <trkpt lat="37.206220" lon="-119.714730">
        <ele>561.782</ele>
        <time>2018-12-28T17:41:35Z</time>
      </trkpt>
      <trkpt lat="37.206150" lon="-119.714830">
        <ele>561.746</ele>
        <time>2018-12-28T17:41:55Z</time>
      </trkpt>
      <trkpt lat="37.206080" lon="-119.714930">
        <ele>561.356</ele>
        <time>2018-12-28T17:42:15Z</time>
      </trkpt>
      <trkpt lat="37.206010" lon="-119.715030">
        <ele>561.452</ele>
        <time>2018-12-28T17:42:35Z</time>
      </trkpt>
      <trkpt lat="37.205940" lon="-119.715160">
        <ele>561.631</ele>
        <time>2018-12-28T17:42:55Z</time>
      </trkpt>
      <trkpt lat="37.205850" lon="-119.715300">
        <ele>561.524</ele>
        <time>2018-12-28T17:43:15Z</time>
      </trkpt>
      <trkpt lat="37.205760" lon="-119.715460">
        <ele>561.804</ele>
        <time>2018-12-28T17:43:35Z</time>
      </trkpt>
      <trkpt lat="37.205680" lon="-119.715600">
        <ele>562.414</ele>
        <time>2018-12-28T17:43:55Z</time>
      </trkpt>
      <trkpt lat="37.205580" lon="-119.715790">
        <ele>563.908</ele>
        <time>2018-12-28T17:44:15Z</time>
      </trkpt>
      <trkpt lat="37.205500" lon="-119.715950">
        <ele>565.085</ele>
        <time>2018-12-28T17:44:35Z</time>
      </trkpt>
      <trkpt lat="37.205400" lon="-119.716170">
        <ele>566.643</ele>
        <time>2018-12-28T17:44:55Z</time>
      </trkpt>
      <trkpt lat="37.205320" lon="-119.716330">
        <ele>567.148</ele>
        <time>2018-12-28T17:45:15Z</time>
      </trkpt>
      <trkpt lat="37.205270" lon="-119.716450">
        <ele>567.388</ele>
        <time>2018-12-28T17:45:35Z</time>
      </trkpt>
      <trkpt lat="37.205230" lon="-119.716570">
        <ele>567.512</ele>
        <time>2018-12-28T17:45:55Z</time>
      </trkpt>
      <trkpt lat="37.205190" lon="-119.716670">
        <ele>567.692</ele>
        <time>2018-12-28T17:46:15Z</time>
      </trkpt>
      <trkpt lat="37.205150" lon="-119.716800">
        <ele>567.798</ele>
        <time>2018-12-28T17:46:35Z</time>
      </trkpt>
      <trkpt lat="37.205140" lon="-119.716820">
        <ele>567.617</ele>
        <time>2018-12-28T17:46:55Z</time>
      </trkpt>
      <trkpt lat="37.205080" lon="-119.717020">
        <ele>567.493</ele>
        <time>2018-12-28T17:47:15Z</time>
      </trkpt>
      <trkpt lat="37.204910" lon="-119.717570">
        <ele>562.965</ele>
        <time>2018-12-28T17:47:35Z</time>
      </trkpt>
      <trkpt lat="37.204560" lon="-119.718720">
        <ele>556.621</ele>
        <time>2018-12-28T17:47:55Z</time>
      </trkpt>
      <trkpt lat="37.204180" lon="-119.720010">
        <ele>551.008</ele>
        <time>2018-12-28T17:48:15Z</time>
      </trkpt>
      <trkpt lat="37.204100" lon="-119.720240">
        <ele>550.252</ele>
        <time>2018-12-28T17:48:35Z</time>
      </trkpt>
      <trkpt lat="37.204020" lon="-119.720450">
        <ele>549.280</ele>
        <time>2018-12-28T17:48:55Z</time>
      </trkpt>
      <trkpt lat="37.203940" lon="-119.720620">
        <ele>547.325</ele>
        <time>2018-12-28T17:49:15Z</time>
      </trkpt>
      <trkpt lat="37.203840" lon="-119.720840">
        <ele>545.545</ele>
        <time>2018-12-28T17:49:35Z</time>
      </trkpt>
      <trkpt lat="37.203720" lon="-119.721040">
        <ele>544.139</ele>
        <time>2018-12-28T17:49:55Z</time>
      </trkpt>
      <trkpt lat="37.203630" lon="-119.721190">
        <ele>542.419</ele>
        <time>2018-12-28T17:50:15Z</time>
      </trkpt>
      <trkpt lat="37.203550" lon="-119.721310">
        <ele>541.135</ele>
        <time>2018-12-28T17:50:35Z</time>
      </trkpt>
      <trkpt lat="37.203460" lon="-119.721430">
        <ele>540.824</ele>
        <time>2018-12-28T17:50:55Z</time>
      </trkpt>
      <trkpt lat="37.203440" lon="-119.721460">
        <ele>540.725</ele>
        <time>2018-12-28T17:51:15Z</time>
      </trkpt>
      <trkpt lat="37.203280" lon="-119.721660">
        <ele>539.626</ele>
        <time>2018-12-28T17:51:35Z</time>
      </trkpt>
      <trkpt lat="37.203110" lon="-119.721850">
        <ele>537.808</ele>
        <time>2018-12-28T17:51:55Z</time>
      </trkpt>
      <trkpt lat="37.202980" lon="-119.721980">
        <ele>535.908</ele>
        <time>2018-12-28T17:52:15Z</time>
      </trkpt>
      <trkpt lat="37.202830" lon="-119.722120">
        <ele>534.465</ele>
        <time>2018-12-28T17:52:35Z</time>
      </trkpt>
      <trkpt lat="37.202620" lon="-119.722290">
        <ele>533.433</ele>
        <time>2018-12-28T17:52:55Z</time>
      </trkpt>
      <trkpt lat="37.202410" lon="-119.722440">
        <ele>533.398</ele>
        <time>2018-12-28T17:53:15Z</time>
      </trkpt>
      <trkpt lat="37.202330" lon="-119.722500">
        <ele>533.498</ele>
        <time>2018-12-28T17:53:35Z</time>
      </trkpt>
      <trkpt lat="37.202300" lon="-119.722530">
        <ele>533.212</ele>
        <time>2018-12-28T17:53:55Z</time>
      </trkpt>
      <trkpt lat="37.202210" lon="-119.722580">
        <ele>533.062</ele>
        <time>2018-12-28T17:54:15Z</time>
      </trkpt>
      <trkpt lat="37.202140" lon="-119.722620">
        <ele>532.938</ele>
        <time>2018-12-28T17:54:35Z</time>
      </trkpt>
      <trkpt lat="37.202050" lon="-119.722660">
        <ele>532.887</ele>
        <time>2018-12-28T17:54:55Z</time>
      </trkpt>
      <trkpt lat="37.201830" lon="-119.722760">
        <ele>532.665</ele>
        <time>2018-12-28T17:55:15Z</time>
      </trkpt>
      <trkpt lat="37.201590" lon="-119.722850">
        <ele>532.368</ele>
        <time>2018-12-28T17:55:35Z</time>
      </trkpt>
      <trkpt lat="37.201360" lon="-119.722910">
        <ele>530.614</ele>
        <time>2018-12-28T17:55:55Z</time>
      </trkpt>
      <trkpt lat="37.201140" lon="-119.722970">
        <ele>527.708</ele>
        <time>2018-12-28T17:56:15Z</time>
      </trkpt>
      <trkpt lat="37.200920" lon="-119.722990">
        <ele>525.379</ele>
        <time>2018-12-28T17:56:35Z</time>
      </trkpt>
      <trkpt lat="37.200880" lon="-119.722990">
        <ele>524.827</ele>
        <time>2018-12-28T17:56:55Z</time>
      </trkpt>
      <trkpt lat="37.200720" lon="-119.723000">
        <ele>522.892</ele>
        <time>2018-12-28T17:57:15Z</time>
      </trkpt>
      <trkpt lat="37.200470" lon="-119.723000">
        <ele>518.982</ele>
        <time>2018-12-28T17:57:35Z</time>
      </trkpt>
      <trkpt lat="37.200240" lon="-119.722980">
        <ele>516.856</ele>
        <time>2018-12-28T17:57:55Z</time>
      </trkpt>
      <trkpt lat="37.199910" lon="-119.722930">
        <ele>514.946</ele>
        <time>2018-12-28T17:58:15Z</time>
      </trkpt>
      <trkpt lat="37.199730" lon="-119.722890">
        <ele>513.152</ele>
        <time>2018-12-28T17:58:35Z</time>
      </trkpt>
      <trkpt lat="37.199530" lon="-119.722820">
        <ele>511.381</ele>
        <time>2018-12-28T17:58:55Z</time>
      </trkpt>
      <trkpt lat="37.199450" lon="-119.722790">
        <ele>511.079</ele>
        <time>2018-12-28T17:59:15Z</time>
      </trkpt>
      <trkpt lat="37.199110" lon="-119.722660">
        <ele>509.205</ele>
        <time>2018-12-28T17:59:35Z</time>
      </trkpt>
      <trkpt lat="37.198720" lon="-119.722500">
        <ele>504.125</ele>
        <time>2018-12-28T17:59:55Z</time>
      </trkpt>
      <trkpt lat="37.198030" lon="-119.722230">
        <ele>501.208</ele>
        <time>2018-12-28T18:00:15Z</time>
      </trkpt>
      <trkpt lat="37.197690" lon="-119.722090">
        <ele>500.440</ele>
        <time>2018-12-28T18:00:35Z</time>
      </trkpt>
      <trkpt lat="37.197460" lon="-119.722000">
        <ele>500.588</ele>
        <time>2018-12-28T18:00:55Z</time>
      </trkpt>
      <trkpt lat="37.196980" lon="-119.721800">
        <ele>495.783</ele>
        <time>2018-12-28T18:01:15Z</time>
      </trkpt>
      <trkpt lat="37.196460" lon="-119.721590">
        <ele>491.133</ele>
        <time>2018-12-28T18:01:35Z</time>
      </trkpt>
      <trkpt lat="37.196310" lon="-119.721530">
        <ele>491.277</ele>
        <time>2018-12-28T18:01:55Z</time>
      </trkpt>
      <trkpt lat="37.196180" lon="-119.721490">
        <ele>491.027</ele>
        <time>2018-12-28T18:02:15Z</time>
      </trkpt>
      <trkpt lat="37.196020" lon="-119.721440">
        <ele>490.343</ele>
        <time>2018-12-28T18:02:35Z</time>
      </trkpt>
      <trkpt lat="37.195840" lon="-119.721380">
        <ele>488.672</ele>
        <time>2018-12-28T18:02:55Z</time>
      </trkpt>
      <trkpt lat="37.195680" lon="-119.721350">
        <ele>486.858</ele>
        <time>2018-12-28T18:03:15Z</time>
      </trkpt>
      <trkpt lat="37.195530" lon="-119.721320">
        <ele>486.552</ele>
        <time>2018-12-28T18:03:35Z</time>
      </trkpt>
      <trkpt lat="37.195350" lon="-119.721300">
        <ele>485.417</ele>
        <time>2018-12-28T18:03:55Z</time>
      </trkpt>
      <trkpt lat="37.195200" lon="-119.721290">
        <ele>483.908</ele>
        <time>2018-12-28T18:04:15Z</time>
      </trkpt>
      <trkpt lat="37.195060" lon="-119.721290">
        <ele>482.088</ele>
        <time>2018-12-28T18:04:35Z</time>
      </trkpt>
      <trkpt lat="37.194890" lon="-119.721290">
        <ele>479.216</ele>
        <time>2018-12-28T18:04:55Z</time>
      </trkpt>
      <trkpt lat="37.194760" lon="-119.721290">
        <ele>478.181</ele>
        <time>2018-12-28T18:05:15Z</time>
      </trkpt>
      <trkpt lat="37.194620" lon="-119.721310">
        <ele>477.111</ele>
        <time>2018-12-28T18:05:35Z</time>
      </trkpt>
      <trkpt lat="37.194460" lon="-119.721330">
        <ele>476.475</ele>
        <time>2018-12-28T18:05:55Z</time>
      </trkpt>
      <trkpt lat="37.194360" lon="-119.721360">
        <ele>475.865</ele>
        <time>2018-12-28T18:06:15Z</time>
      </trkpt>
      <trkpt lat="37.194210" lon="-119.721400">
        <ele>474.351</ele>
        <time>2018-12-28T18:06:35Z</time>
      </trkpt>
      <trkpt lat="37.194200" lon="-119.721400">
        <ele>474.120</ele>
        <time>2018-12-28T18:06:55Z</time>
      </trkpt>
      <trkpt lat="37.194140" lon="-119.721420">
        <ele>473.346</ele>
        <time>2018-12-28T18:07:15Z</time>
      </trkpt>
      <trkpt lat="37.194080" lon="-119.721440">
        <ele>472.688</ele>
        <time>2018-12-28T18:07:35Z</time>
      </trkpt>
      <trkpt lat="37.193980" lon="-119.721480">
        <ele>471.716</ele>
        <time>2018-12-28T18:07:55Z</time>
      </trkpt>
      <trkpt lat="37.193860" lon="-119.721530">
        <ele>471.208</ele>
        <time>2018-12-28T18:08:15Z</time>
      </trkpt>
      <trkpt lat="37.193740" lon="-119.721580">
        <ele>470.587</ele>
        <time>2018-12-28T18:08:35Z</time>
      </trkpt>
      <trkpt lat="37.193620" lon="-119.721640">
        <ele>470.175</ele>
        <time>2018-12-28T18:08:55Z</time>
      </trkpt>
      <trkpt lat="37.193500" lon="-119.721700">
        <ele>469.920</ele>
        <time>2018-12-28T18:09:15Z</time>
      </trkpt>
      <trkpt lat="37.193360" lon="-119.721770">
        <ele>469.430</ele>
        <time>2018-12-28T18:09:35Z</time>
      </trkpt>
      <trkpt lat="37.193230" lon="-119.721850">
        <ele>468.364</ele>
        <time>2018-12-28T18:09:55Z</time>
      </trkpt>
      <trkpt lat="37.193100" lon="-119.721930">
        <ele>467.754</ele>
        <time>2018-12-28T18:10:15Z</time>
      </trkpt>
      <trkpt lat="37.192970" lon="-119.722030">
        <ele>467.230</ele>
        <time>2018-12-28T18:10:35Z</time>
      </trkpt>
      <trkpt lat="37.192840" lon="-119.722140">
        <ele>466.349</ele>
        <time>2018-12-28T18:10:55Z</time>
      </trkpt>
      <trkpt lat="37.192730" lon="-119.722220">
        <ele>465.771</ele>
        <time>2018-12-28T18:11:15Z</time>
      </trkpt>
      <trkpt lat="37.192630" lon="-119.722310">
        <ele>465.141</ele>
        <time>2018-12-28T18:11:35Z</time>
      </trkpt>
      <trkpt lat="37.192550" lon="-119.722390">
        <ele>465.515</ele>
        <time>2018-12-28T18:11:55Z</time>
      </trkpt>
      <trkpt lat="37.192460" lon="-119.722470">
        <ele>466.108</ele>
        <time>2018-12-28T18:12:15Z</time>
      </trkpt>
      <trkpt lat="37.192290" lon="-119.722660">
        <ele>467.090</ele>
        <time>2018-12-28T18:12:35Z</time>
      </trkpt>
      <trkpt lat="37.191560" lon="-119.723540">
        <ele>467.088</ele>
        <time>2018-12-28T18:12:55Z</time>
      </trkpt>
      <trkpt lat="37.191100" lon="-119.724110">
        <ele>468.443</ele>
        <time>2018-12-28T18:13:15Z</time>
      </trkpt>
      <trkpt lat="37.189730" lon="-119.725810">
        <ele>467.123</ele>
        <time>2018-12-28T18:13:35Z</time>
      </trkpt>
      <trkpt lat="37.189360" lon="-119.726260">
        <ele>465.017</ele>
        <time>2018-12-28T18:13:55Z</time>
      </trkpt>
      <trkpt lat="37.189200" lon="-119.726450">
        <ele>464.647</ele>
        <time>2018-12-28T18:14:15Z</time>
      </trkpt>
      <trkpt lat="37.189080" lon="-119.726580">
        <ele>464.623</ele>
        <time>2018-12-28T18:14:35Z</time>
      </trkpt>
      <trkpt lat="37.188980" lon="-119.726690">
        <ele>465.272</ele>
        <time>2018-12-28T18:14:55Z</time>
      </trkpt>
      <trkpt lat="37.188890" lon="-119.726790">
        <ele>466.076</ele>
        <time>2018-12-28T18:15:15Z</time>
      </trkpt>
      <trkpt lat="37.188780" lon="-119.726900">
        <ele>466.390</ele>
        <time>2018-12-28T18:15:35Z</time>
      </trkpt>
      <trkpt lat="37.188690" lon="-119.726990">
        <ele>466.219</ele>
        <time>2018-12-28T18:15:55Z</time>
      </trkpt>
      <trkpt lat="37.188580" lon="-119.727080">
        <ele>465.908</ele>
        <time>2018-12-28T18:16:15Z</time>
      </trkpt>
      <trkpt lat="37.188490" lon="-119.727150">
        <ele>465.510</ele>
        <time>2018-12-28T18:16:35Z</time>
      </trkpt>
      <trkpt lat="37.188400" lon="-119.727220">
        <ele>464.798</ele>
        <time>2018-12-28T18:16:55Z</time>
      </trkpt>
      <trkpt lat="37.188280" lon="-119.727320">
        <ele>464.123</ele>
        <time>2018-12-28T18:17:15Z</time>
      </trkpt>
      <trkpt lat="37.188130" lon="-119.727420">
        <ele>464.313</ele>
        <time>2018-12-28T18:17:35Z</time>
      </trkpt>
      <trkpt lat="37.187990" lon="-119.727520">
        <ele>464.147</ele>
        <time>2018-12-28T18:17:55Z</time>
      </trkpt>
      <trkpt lat="37.187840" lon="-119.727620">
        <ele>464.187</ele>
        <time>2018-12-28T18:18:15Z</time>
      </trkpt>
      <trkpt lat="37.187740" lon="-119.727680">
        <ele>464.143</ele>
        <time>2018-12-28T18:18:35Z</time>
      </trkpt>
      <trkpt lat="37.187660" lon="-119.727720">
        <ele>464.112</ele>
        <time>2018-12-28T18:18:55Z</time>
      </trkpt>
      <trkpt lat="37.187540" lon="-119.727790">
        <ele>463.919</ele>
        <time>2018-12-28T18:19:15Z</time>
      </trkpt>
      <trkpt lat="37.187400" lon="-119.727860">
        <ele>463.209</ele>
        <time>2018-12-28T18:19:35Z</time>
      </trkpt>
      <trkpt lat="37.187290" lon="-119.727910">
        <ele>462.819</ele>
        <time>2018-12-28T18:19:55Z</time>
      </trkpt>
      <trkpt lat="37.187140" lon="-119.727970">
        <ele>462.508</ele>
        <time>2018-12-28T18:20:15Z</time>
      </trkpt>
      <trkpt lat="37.186970" lon="-119.728040">
        <ele>462.284</ele>
        <time>2018-12-28T18:20:35Z</time>
      </trkpt>
      <trkpt lat="37.186790" lon="-119.728100">
        <ele>461.782</ele>
        <time>2018-12-28T18:20:55Z</time>
      </trkpt>
      <trkpt lat="37.186650" lon="-119.728150">
        <ele>460.527</ele>
        <time>2018-12-28T18:21:15Z</time>
      </trkpt>
      <trkpt lat="37.186540" lon="-119.728170">
        <ele>459.687</ele>
        <time>2018-12-28T18:21:35Z</time>
      </trkpt>
      <trkpt lat="37.186440" lon="-119.728190">
        <ele>459.331</ele>
        <time>2018-12-28T18:21:55Z</time>
      </trkpt>
      <trkpt lat="37.186270" lon="-119.728220">
        <ele>459.011</ele>
        <time>2018-12-28T18:22:15Z</time>
      </trkpt>
      <trkpt lat="37.186080" lon="-119.728260">
        <ele>459.057</ele>
        <time>2018-12-28T18:22:35Z</time>
      </trkpt>
      <trkpt lat="37.185870" lon="-119.728290">
        <ele>459.216</ele>
        <time>2018-12-28T18:22:55Z</time>
      </trkpt>
      <trkpt lat="37.183990" lon="-119.728540">
        <ele>463.779</ele>
        <time>2018-12-28T18:23:15Z</time>
      </trkpt>
      <trkpt lat="37.181860" lon="-119.728800">
        <ele>447.405</ele>
        <time>2018-12-28T18:23:35Z</time>
      </trkpt>
      <trkpt lat="37.181000" lon="-119.728880">
        <ele>438.525</ele>
        <time>2018-12-28T18:23:55Z</time>
      </trkpt>
      <trkpt lat="37.180940" lon="-119.728890">
        <ele>438.008</ele>
        <time>2018-12-28T18:24:15Z</time>
      </trkpt>
      <trkpt lat="37.180660" lon="-119.728900">
        <ele>436.890</ele>
        <time>2018-12-28T18:24:35Z</time>
      </trkpt>
      <trkpt lat="37.180340" lon="-119.728920">
        <ele>437.178</ele>
        <time>2018-12-28T18:24:55Z</time>
      </trkpt>
      <trkpt lat="37.179860" lon="-119.728940">
        <ele>435.993</ele>
        <time>2018-12-28T18:25:15Z</time>
      </trkpt>
      <trkpt lat="37.179360" lon="-119.728940">
        <ele>431.113</ele>
        <time>2018-12-28T18:25:35Z</time>
      </trkpt>
      <trkpt lat="37.178950" lon="-119.728930">
        <ele>429.817</ele>
        <time>2018-12-28T18:25:55Z</time>
      </trkpt>
      <trkpt lat="37.178430" lon="-119.728920">
        <ele>430.857</ele>
        <time>2018-12-28T18:26:15Z</time>
      </trkpt>
      <trkpt lat="37.178030" lon="-119.728900">
        <ele>432.943</ele>
        <time>2018-12-28T18:26:35Z</time>
      </trkpt>
      <trkpt lat="37.177510" lon="-119.728870">
        <ele>433.272</ele>
        <time>2018-12-28T18:26:55Z</time>
      </trkpt>
      <trkpt lat="37.176940" lon="-119.728810">
        <ele>430.844</ele>
        <time>2018-12-28T18:27:15Z</time>
      </trkpt>
      <trkpt lat="37.176070" lon="-119.728710">
        <ele>428.205</ele>
        <time>2018-12-28T18:27:35Z</time>
      </trkpt>
      <trkpt lat="37.175800" lon="-119.728670">
        <ele>428.315</ele>
        <time>2018-12-28T18:27:55Z</time>
      </trkpt>
      <trkpt lat="37.174560" lon="-119.728510">
        <ele>427.808</ele>
        <time>2018-12-28T18:28:15Z</time>
      </trkpt>
      <trkpt lat="37.173870" lon="-119.728420">
        <ele>423.187</ele>
        <time>2018-12-28T18:28:35Z</time>
      </trkpt>
      <trkpt lat="37.173210" lon="-119.728350">
        <ele>416.315</ele>
        <time>2018-12-28T18:28:55Z</time>
      </trkpt>
      <trkpt lat="37.171970" lon="-119.728200">
        <ele>411.090</ele>
        <time>2018-12-28T18:29:15Z</time>
      </trkpt>
      <trkpt lat="37.171220" lon="-119.728120">
        <ele>407.970</ele>
        <time>2018-12-28T18:29:35Z</time>
      </trkpt>
      <trkpt lat="37.170480" lon="-119.728020">
        <ele>401.274</ele>
        <time>2018-12-28T18:29:55Z</time>
      </trkpt>
      <trkpt lat="37.169840" lon="-119.727950">
        <ele>397.734</ele>
        <time>2018-12-28T18:30:15Z</time>
      </trkpt>
      <trkpt lat="37.169060" lon="-119.727860">
        <ele>393.460</ele>
        <time>2018-12-28T18:30:35Z</time>
      </trkpt>
      <trkpt lat="37.168540" lon="-119.727800">
        <ele>392.389</ele>
        <time>2018-12-28T18:30:55Z</time>
      </trkpt>
      <trkpt lat="37.168170" lon="-119.727760">
        <ele>393.651</ele>
        <time>2018-12-28T18:31:15Z</time>
      </trkpt>
      <trkpt lat="37.167960" lon="-119.727740">
        <ele>394.501</ele>
        <time>2018-12-28T18:31:35Z</time>
      </trkpt>
      <trkpt lat="37.167810" lon="-119.727740">
        <ele>394.911</ele>
        <time>2018-12-28T18:31:55Z</time>
      </trkpt>
      <trkpt lat="37.167620" lon="-119.727730">
        <ele>395.408</ele>
        <time>2018-12-28T18:32:15Z</time>
      </trkpt>
      <trkpt lat="37.167190" lon="-119.727700">
        <ele>395.628</ele>
        <time>2018-12-28T18:32:35Z</time>
      </trkpt>
      <trkpt lat="37.166620" lon="-119.727670">
        <ele>395.186</ele>
        <time>2018-12-28T18:32:55Z</time>
      </trkpt>
      <trkpt lat="37.166440" lon="-119.727660">
        <ele>394.471</ele>
        <time>2018-12-28T18:33:15Z</time>
      </trkpt>
      <trkpt lat="37.165960" lon="-119.727640">
        <ele>390.871</ele>
        <time>2018-12-28T18:33:35Z</time>
      </trkpt>
      <trkpt lat="37.165610" lon="-119.727640">
        <ele>389.255</ele>
        <time>2018-12-28T18:33:55Z</time>
      </trkpt>
      <trkpt lat="37.164770" lon="-119.727650">
        <ele>386.285</ele>
        <time>2018-12-28T18:34:15Z</time>
      </trkpt>
      <trkpt lat="37.161790" lon="-119.727690">
        <ele>388.341</ele>
        <time>2018-12-28T18:34:35Z</time>
      </trkpt>
      <trkpt lat="37.161610" lon="-119.727690">
        <ele>389.780</ele>
        <time>2018-12-28T18:34:55Z</time>
      </trkpt>
      <trkpt lat="37.161450" lon="-119.727700">
        <ele>390.933</ele>
        <time>2018-12-28T18:35:15Z</time>
      </trkpt>
      <trkpt lat="37.161250" lon="-119.727700">
        <ele>392.223</ele>
        <time>2018-12-28T18:35:35Z</time>
      </trkpt>
      <trkpt lat="37.161060" lon="-119.727720">
        <ele>393.715</ele>
        <time>2018-12-28T18:35:55Z</time>
      </trkpt>
      <trkpt lat="37.160930" lon="-119.727730">
        <ele>394.508</ele>
        <time>2018-12-28T18:36:15Z</time>
      </trkpt>
      <trkpt lat="37.160760" lon="-119.727750">
        <ele>395.036</ele>
        <time>2018-12-28T18:36:35Z</time>
      </trkpt>
      <trkpt lat="37.160620" lon="-119.727780">
        <ele>394.514</ele>
        <time>2018-12-28T18:36:55Z</time>
      </trkpt>
      <trkpt lat="37.160470" lon="-119.727810">
        <ele>393.519</ele>
        <time>2018-12-28T18:37:15Z</time>
      </trkpt>
      <trkpt lat="37.160340" lon="-119.727840">
        <ele>392.689</ele>
        <time>2018-12-28T18:37:35Z</time>
      </trkpt>
      <trkpt lat="37.160160" lon="-119.727910">
        <ele>391.393</ele>
        <time>2018-12-28T18:37:55Z</time>
      </trkpt>
      <trkpt lat="37.159980" lon="-119.727990">
        <ele>390.443</ele>
        <time>2018-12-28T18:38:15Z</time>
      </trkpt>
      <trkpt lat="37.159810" lon="-119.728060">
        <ele>389.839</ele>
        <time>2018-12-28T18:38:35Z</time>
      </trkpt>
      <trkpt lat="37.159690" lon="-119.728130">
        <ele>389.188</ele>
        <time>2018-12-28T18:38:55Z</time>
      </trkpt>
      <trkpt lat="37.159540" lon="-119.728230">
        <ele>388.381</ele>
        <time>2018-12-28T18:39:15Z</time>
      </trkpt>
      <trkpt lat="37.159390" lon="-119.728330">
        <ele>388.061</ele>
        <time>2018-12-28T18:39:35Z</time>
      </trkpt>
      <trkpt lat="37.159300" lon="-119.728400">
        <ele>387.117</ele>
        <time>2018-12-28T18:39:55Z</time>
      </trkpt>
      <trkpt lat="37.159160" lon="-119.728530">
        <ele>386.408</ele>
        <time>2018-12-28T18:40:15Z</time>
      </trkpt>
      <trkpt lat="37.159110" lon="-119.728570">
        <ele>386.371</ele>
        <time>2018-12-28T18:40:35Z</time>
      </trkpt>
      <trkpt lat="37.159030" lon="-119.728650">
        <ele>386.149</ele>
        <time>2018-12-28T18:40:55Z</time>
      </trkpt>
      <trkpt lat="37.158890" lon="-119.728800">
        <ele>385.274</ele>
        <time>2018-12-28T18:41:15Z</time>
      </trkpt>
      <trkpt lat="37.158750" lon="-119.728960">
        <ele>386.024</ele>
        <time>2018-12-28T18:41:35Z</time>
      </trkpt>
      <trkpt lat="37.158650" lon="-119.729080">
        <ele>385.348</ele>
        <time>2018-12-28T18:41:55Z</time>
      </trkpt>
      <trkpt lat="37.158570" lon="-119.729190">
        <ele>384.758</ele>
        <time>2018-12-28T18:42:15Z</time>
      </trkpt>
      <trkpt lat="37.158320" lon="-119.729540">
        <ele>386.874</ele>
        <time>2018-12-28T18:42:35Z</time>
      </trkpt>
      <trkpt lat="37.158080" lon="-119.729890">
        <ele>387.483</ele>
        <time>2018-12-28T18:42:55Z</time>
      </trkpt>
      <trkpt lat="37.157900" lon="-119.730130">
        <ele>387.963</ele>
        <time>2018-12-28T18:43:15Z</time>
      </trkpt>
      <trkpt lat="37.157740" lon="-119.730320">
        <ele>388.844</ele>
        <time>2018-12-28T18:43:35Z</time>
      </trkpt>
      <trkpt lat="37.157630" lon="-119.730440">
        <ele>389.118</ele>
        <time>2018-12-28T18:43:55Z</time>
      </trkpt>
      <trkpt lat="37.157510" lon="-119.730570">
        <ele>389.708</ele>
        <time>2018-12-28T18:44:15Z</time>
      </trkpt>
      <trkpt lat="37.157360" lon="-119.730700">
        <ele>389.299</ele>
        <time>2018-12-28T18:44:35Z</time>
      </trkpt>
      <trkpt lat="37.157170" lon="-119.730860">
        <ele>389.017</ele>
        <time>2018-12-28T18:44:55Z</time>
      </trkpt>
      <trkpt lat="37.157080" lon="-119.730930">
        <ele>388.892</ele>
        <time>2018-12-28T18:45:15Z</time>
      </trkpt>
      <trkpt lat="37.156920" lon="-119.731050">
        <ele>388.492</ele>
        <time>2018-12-28T18:45:35Z</time>
      </trkpt>
      <trkpt lat="37.156790" lon="-119.731130">
        <ele>388.236</ele>
        <time>2018-12-28T18:45:55Z</time>
      </trkpt>
      <trkpt lat="37.156610" lon="-119.731230">
        <ele>387.846</ele>
        <time>2018-12-28T18:46:15Z</time>
      </trkpt>
      <trkpt lat="37.156570" lon="-119.731290">
        <ele>387.482</ele>
        <time>2018-12-28T18:46:35Z</time>
      </trkpt>
      <trkpt lat="37.156560" lon="-119.731290">
        <ele>387.551</ele>
        <time>2018-12-28T18:46:55Z</time>
      </trkpt>
      <trkpt lat="37.156550" lon="-119.731300">
        <ele>387.463</ele>
        <time>2018-12-28T18:47:15Z</time>
      </trkpt>
      <trkpt lat="37.156430" lon="-119.731370">
        <ele>387.344</ele>
        <time>2018-12-28T18:47:35Z</time>
      </trkpt>
      <trkpt lat="37.156270" lon="-119.731440">
        <ele>387.318</ele>
        <time>2018-12-28T18:47:55Z</time>
      </trkpt>
      <trkpt lat="37.156060" lon="-119.731530">
        <ele>387.408</ele>
        <time>2018-12-28T18:48:15Z</time>
      </trkpt>
      <trkpt lat="37.155940" lon="-119.731580">
        <ele>387.419</ele>
        <time>2018-12-28T18:48:35Z</time>
      </trkpt>
      <trkpt lat="37.155830" lon="-119.731610">
        <ele>387.477</ele>
        <time>2018-12-28T18:48:55Z</time>
      </trkpt>
      <trkpt lat="37.155800" lon="-119.731620">
        <ele>387.422</ele>
        <time>2018-12-28T18:49:15Z</time>
      </trkpt>
      <trkpt lat="37.155710" lon="-119.731640">
        <ele>387.352</ele>
        <time>2018-12-28T18:49:35Z</time>
      </trkpt>
      <trkpt lat="37.155120" lon="-119.731730">
        <ele>383.336</ele>
        <time>2018-12-28T18:49:55Z</time>
      </trkpt>
      <trkpt lat="37.154740" lon="-119.731700">
        <ele>382.536</ele>
        <time>2018-12-28T18:50:15Z</time>
      </trkpt>
      <trkpt lat="37.154100" lon="-119.731610">
        <ele>380.172</ele>
        <time>2018-12-28T18:50:35Z</time>
      </trkpt>
      <trkpt lat="37.153690" lon="-119.731560">
        <ele>376.431</ele>
        <time>2018-12-28T18:50:55Z</time>
      </trkpt>
      <trkpt lat="37.153250" lon="-119.731510">
        <ele>374.495</ele>
        <time>2018-12-28T18:51:15Z</time>
      </trkpt>
      <trkpt lat="37.153020" lon="-119.731490">
        <ele>374.249</ele>
        <time>2018-12-28T18:51:35Z</time>
      </trkpt>
      <trkpt lat="37.152790" lon="-119.731470">
        <ele>374.023</ele>
        <time>2018-12-28T18:51:55Z</time>
      </trkpt>
      <trkpt lat="37.152560" lon="-119.731460">
        <ele>373.908</ele>
        <time>2018-12-28T18:52:15Z</time>
      </trkpt>
      <trkpt lat="37.152540" lon="-119.731460">
        <ele>373.832</ele>
        <time>2018-12-28T18:52:35Z</time>
      </trkpt>
      <trkpt lat="37.152480" lon="-119.731440">
        <ele>373.990</ele>
        <time>2018-12-28T18:52:55Z</time>
      </trkpt>
      <trkpt lat="37.152150" lon="-119.731460">
        <ele>373.415</ele>
        <time>2018-12-28T18:53:15Z</time>
      </trkpt>
      <trkpt lat="37.151780" lon="-119.731500">
        <ele>373.235</ele>
        <time>2018-12-28T18:53:35Z</time>
      </trkpt>
      <trkpt lat="37.151360" lon="-119.731560">
        <ele>373.859</ele>
        <time>2018-12-28T18:53:55Z</time>
      </trkpt>
      <trkpt lat="37.150450" lon="-119.731700">
        <ele>376.489</ele>
        <time>2018-12-28T18:54:15Z</time>
      </trkpt>
      <trkpt lat="37.149460" lon="-119.731840">
        <ele>376.595</ele>
        <time>2018-12-28T18:54:35Z</time>
      </trkpt>
      <trkpt lat="37.149140" lon="-119.731890">
        <ele>375.614</ele>
        <time>2018-12-28T18:54:55Z</time>
      </trkpt>
      <trkpt lat="37.148280" lon="-119.732020">
        <ele>375.117</ele>
        <time>2018-12-28T18:55:15Z</time>
      </trkpt>
      <trkpt lat="37.140180" lon="-119.733220">
        <ele>409.087</ele>
        <time>2018-12-28T18:55:35Z</time>
      </trkpt>
      <trkpt lat="37.136600" lon="-119.733750">
        <ele>415.315</ele>
        <time>2018-12-28T18:55:55Z</time>
      </trkpt>
      <trkpt lat="37.136270" lon="-119.733810">
        <ele>414.308</ele>
        <time>2018-12-28T18:56:15Z</time>
      </trkpt>
      <trkpt lat="37.135950" lon="-119.733860">
        <ele>413.044</ele>
        <time>2018-12-28T18:56:35Z</time>
      </trkpt>
      <trkpt lat="37.135130" lon="-119.733990">
        <ele>413.522</ele>
        <time>2018-12-28T18:56:55Z</time>
      </trkpt>
      <trkpt lat="37.134530" lon="-119.734090">
        <ele>418.287</ele>
        <time>2018-12-28T18:57:15Z</time>
      </trkpt>
      <trkpt lat="37.133950" lon="-119.734200">
        <ele>421.057</ele>
        <time>2018-12-28T18:57:35Z</time>
      </trkpt>
      <trkpt lat="37.133470" lon="-119.734320">
        <ele>421.681</ele>
        <time>2018-12-28T18:57:55Z</time>
      </trkpt>
      <trkpt lat="37.133240" lon="-119.734370">
        <ele>421.751</ele>
        <time>2018-12-28T18:58:15Z</time>
      </trkpt>
      <trkpt lat="37.132990" lon="-119.734440">
        <ele>421.887</ele>
        <time>2018-12-28T18:58:35Z</time>
      </trkpt>
      <trkpt lat="37.132620" lon="-119.734530">
        <ele>421.816</ele>
        <time>2018-12-28T18:58:55Z</time>
      </trkpt>
      <trkpt lat="37.132260" lon="-119.734640">
        <ele>421.577</ele>
        <time>2018-12-28T18:59:15Z</time>
      </trkpt>
      <trkpt lat="37.131800" lon="-119.734770">
        <ele>421.861</ele>
        <time>2018-12-28T18:59:35Z</time>
      </trkpt>
      <trkpt lat="37.131410" lon="-119.734890">
        <ele>421.427</ele>
        <time>2018-12-28T18:59:55Z</time>
      </trkpt>
      <trkpt lat="37.130910" lon="-119.735050">
        <ele>427.108</ele>
        <time>2018-12-28T19:00:15Z</time>
      </trkpt>
      <trkpt lat="37.130460" lon="-119.735190">
        <ele>431.890</ele>
        <time>2018-12-28T19:00:35Z</time>
      </trkpt>
      <trkpt lat="37.129410" lon="-119.735500">
        <ele>437.638</ele>
        <time>2018-12-28T19:00:55Z</time>
      </trkpt>
      <trkpt lat="37.129040" lon="-119.735600">
        <ele>437.793</ele>
        <time>2018-12-28T19:01:15Z</time>
      </trkpt>
      <trkpt lat="37.128770" lon="-119.735690">
        <ele>438.613</ele>
        <time>2018-12-28T19:01:35Z</time>
      </trkpt>
      <trkpt lat="37.128620" lon="-119.735730">
        <ele>438.727</ele>
        <time>2018-12-28T19:01:55Z</time>
      </trkpt>
      <trkpt lat="37.127480" lon="-119.736060">
        <ele>444.947</ele>
        <time>2018-12-28T19:02:15Z</time>
      </trkpt>
      <trkpt lat="37.127400" lon="-119.736130">
        <ele>445.223</ele>
        <time>2018-12-28T19:02:35Z</time>
      </trkpt>
      <trkpt lat="37.127370" lon="-119.736140">
        <ele>445.322</ele>
        <time>2018-12-28T19:02:55Z</time>
      </trkpt>
      <trkpt lat="37.127190" lon="-119.736200">
        <ele>443.296</ele>
        <time>2018-12-28T19:03:15Z</time>
      </trkpt>
      <trkpt lat="37.126900" lon="-119.736280">
        <ele>441.731</ele>
        <time>2018-12-28T19:03:35Z</time>
      </trkpt>
      <trkpt lat="37.126630" lon="-119.736370">
        <ele>441.324</ele>
        <time>2018-12-28T19:03:55Z</time>
      </trkpt>
      <trkpt lat="37.126360" lon="-119.736450">
        <ele>442.708</ele>
        <time>2018-12-28T19:04:15Z</time>
      </trkpt>
      <trkpt lat="37.125900" lon="-119.736590">
        <ele>446.542</ele>
        <time>2018-12-28T19:04:35Z</time>
      </trkpt>
      <trkpt lat="37.125750" lon="-119.736640">
        <ele>448.190</ele>
        <time>2018-12-28T19:04:55Z</time>
      </trkpt>
      <trkpt lat="37.125010" lon="-119.736860">
        <ele>449.685</ele>
        <time>2018-12-28T19:05:15Z</time>
      </trkpt>
      <trkpt lat="37.124420" lon="-119.737040">
        <ele>452.915</ele>
        <time>2018-12-28T19:05:35Z</time>
      </trkpt>
      <trkpt lat="37.124010" lon="-119.737170">
        <ele>455.879</ele>
        <time>2018-12-28T19:05:55Z</time>
      </trkpt>
      <trkpt lat="37.123760" lon="-119.737240">
        <ele>456.349</ele>
        <time>2018-12-28T19:06:15Z</time>
      </trkpt>
      <trkpt lat="37.123580" lon="-119.737310">
        <ele>456.555</ele>
        <time>2018-12-28T19:06:35Z</time>
      </trkpt>
      <trkpt lat="37.123380" lon="-119.737380">
        <ele>456.854</ele>
        <time>2018-12-28T19:06:55Z</time>
      </trkpt>
      <trkpt lat="37.123360" lon="-119.737380">
        <ele>456.839</ele>
        <time>2018-12-28T19:07:15Z</time>
      </trkpt>
      <trkpt lat="37.123210" lon="-119.737400">
        <ele>457.001</ele>
        <time>2018-12-28T19:07:35Z</time>
      </trkpt>
      <trkpt lat="37.123160" lon="-119.737420">
        <ele>457.021</ele>
        <time>2018-12-28T19:07:55Z</time>
      </trkpt>
      <trkpt lat="37.122930" lon="-119.737520">
        <ele>457.008</ele>
        <time>2018-12-28T19:08:15Z</time>
      </trkpt>
      <trkpt lat="37.122510" lon="-119.737740">
        <ele>458.196</ele>
        <time>2018-12-28T19:08:35Z</time>
      </trkpt>
      <trkpt lat="37.122150" lon="-119.737970">
        <ele>458.834</ele>
        <time>2018-12-28T19:08:55Z</time>
      </trkpt>
      <trkpt lat="37.121880" lon="-119.738140">
        <ele>459.459</ele>
        <time>2018-12-28T19:09:15Z</time>
      </trkpt>
      <trkpt lat="37.121730" lon="-119.738250">
        <ele>459.229</ele>
        <time>2018-12-28T19:09:35Z</time>
      </trkpt>
      <trkpt lat="37.121640" lon="-119.738330">
        <ele>459.673</ele>
        <time>2018-12-28T19:09:55Z</time>
      </trkpt>
      <trkpt lat="37.121550" lon="-119.738400">
        <ele>459.883</ele>
        <time>2018-12-28T19:10:15Z</time>
      </trkpt>
      <trkpt lat="37.121410" lon="-119.738520">
        <ele>459.929</ele>
        <time>2018-12-28T19:10:35Z</time>
      </trkpt>
      <trkpt lat="37.121240" lon="-119.738680">
        <ele>458.728</ele>
        <time>2018-12-28T19:10:55Z</time>
      </trkpt>
      <trkpt lat="37.121080" lon="-119.738830">
        <ele>457.966</ele>
        <time>2018-12-28T19:11:15Z</time>
      </trkpt>
      <trkpt lat="37.120920" lon="-119.739000">
        <ele>457.529</ele>
        <time>2018-12-28T19:11:35Z</time>
      </trkpt>
      <trkpt lat="37.120820" lon="-119.739110">
        <ele>457.321</ele>
        <time>2018-12-28T19:11:55Z</time>
      </trkpt>
      <trkpt lat="37.120640" lon="-119.739320">
        <ele>456.808</ele>
        <time>2018-12-28T19:12:15Z</time>
      </trkpt>
      <trkpt lat="37.120510" lon="-119.739480">
        <ele>456.529</ele>
        <time>2018-12-28T19:12:35Z</time>
      </trkpt>
      <trkpt lat="37.120230" lon="-119.739850">
        <ele>453.667</ele>
        <time>2018-12-28T19:12:55Z</time>
      </trkpt>
      <trkpt lat="37.119500" lon="-119.740860">
        <ele>446.052</ele>
        <time>2018-12-28T19:13:15Z</time>
      </trkpt>
      <trkpt lat="37.119460" lon="-119.740930">
        <ele>445.542</ele>
        <time>2018-12-28T19:13:35Z</time>
      </trkpt>
      <trkpt lat="37.119380" lon="-119.741030">
        <ele>444.466</ele>
        <time>2018-12-28T19:13:55Z</time>
      </trkpt>
      <trkpt lat="37.119280" lon="-119.741180">
        <ele>443.576</ele>
        <time>2018-12-28T19:14:15Z</time>
      </trkpt>
      <trkpt lat="37.119140" lon="-119.741360">
        <ele>443.342</ele>
        <time>2018-12-28T19:14:35Z</time>
      </trkpt>
      <trkpt lat="37.119060" lon="-119.741460">
        <ele>443.171</ele>
        <time>2018-12-28T19:14:55Z</time>
      </trkpt>
      <trkpt lat="37.119000" lon="-119.741530">
        <ele>443.041</ele>
        <time>2018-12-28T19:15:15Z</time>
      </trkpt>
      <trkpt lat="37.118920" lon="-119.741620">
        <ele>442.581</ele>
        <time>2018-12-28T19:15:35Z</time>
      </trkpt>
      <trkpt lat="37.118760" lon="-119.741800">
        <ele>440.909</ele>
        <time>2018-12-28T19:15:55Z</time>
      </trkpt>
      <trkpt lat="37.118610" lon="-119.741960">
        <ele>439.708</ele>
        <time>2018-12-28T19:16:15Z</time>
      </trkpt>
      <trkpt lat="37.118470" lon="-119.742100">
        <ele>438.067</ele>
        <time>2018-12-28T19:16:35Z</time>
      </trkpt>
      <trkpt lat="37.118340" lon="-119.742220">
        <ele>436.665</ele>
        <time>2018-12-28T19:16:55Z</time>
      </trkpt>
      <trkpt lat="37.118190" lon="-119.742360">
        <ele>434.960</ele>
        <time>2018-12-28T19:17:15Z</time>
      </trkpt>
      <trkpt lat="37.117980" lon="-119.742530">
        <ele>434.860</ele>
        <time>2018-12-28T19:17:35Z</time>
      </trkpt>
      <trkpt lat="37.117800" lon="-119.742670">
        <ele>433.684</ele>
        <time>2018-12-28T19:17:55Z</time>
      </trkpt>
      <trkpt lat="37.117660" lon="-119.742770">
        <ele>433.624</ele>
        <time>2018-12-28T19:18:15Z</time>
      </trkpt>
      <trkpt lat="37.117490" lon="-119.742890">
        <ele>433.390</ele>
        <time>2018-12-28T19:18:35Z</time>
      </trkpt>
      <trkpt lat="37.117330" lon="-119.742990">
        <ele>433.029</ele>
        <time>2018-12-28T19:18:55Z</time>
      </trkpt>
      <trkpt lat="37.117200" lon="-119.743080">
        <ele>432.373</ele>
        <time>2018-12-28T19:19:15Z</time>
      </trkpt>
      <trkpt lat="37.117040" lon="-119.743170">
        <ele>430.385</ele>
        <time>2018-12-28T19:19:35Z</time>
      </trkpt>
      <trkpt lat="37.116840" lon="-119.743270">
        <ele>427.913</ele>
        <time>2018-12-28T19:19:55Z</time>
      </trkpt>
      <trkpt lat="37.116680" lon="-119.743350">
        <ele>425.308</ele>
        <time>2018-12-28T19:20:15Z</time>
      </trkpt>
      <trkpt lat="37.116550" lon="-119.743410">
        <ele>423.020</ele>
        <time>2018-12-28T19:20:35Z</time>
      </trkpt>
      <trkpt lat="37.116400" lon="-119.743480">
        <ele>421.818</ele>
        <time>2018-12-28T19:20:55Z</time>
      </trkpt>
      <trkpt lat="37.116290" lon="-119.743520">
        <ele>421.223</ele>
        <time>2018-12-28T19:21:15Z</time>
      </trkpt>
      <trkpt lat="37.116150" lon="-119.743570">
        <ele>420.243</ele>
        <time>2018-12-28T19:21:35Z</time>
      </trkpt>
      <trkpt lat="37.115920" lon="-119.743650">
        <ele>418.687</ele>
        <time>2018-12-28T19:21:55Z</time>
      </trkpt>
      <trkpt lat="37.115810" lon="-119.743680">
        <ele>417.537</ele>
        <time>2018-12-28T19:22:15Z</time>
      </trkpt>
      <trkpt lat="37.115690" lon="-119.743720">
        <ele>416.993</ele>
        <time>2018-12-28T19:22:35Z</time>
      </trkpt>
      <trkpt lat="37.115520" lon="-119.743760">
        <ele>417.932</ele>
        <time>2018-12-28T19:22:55Z</time>
      </trkpt>
      <trkpt lat="37.115290" lon="-119.743800">
        <ele>418.144</ele>
        <time>2018-12-28T19:23:15Z</time>
      </trkpt>
      <trkpt lat="37.113910" lon="-119.744030">
        <ele>414.105</ele>
        <time>2018-12-28T19:23:35Z</time>
      </trkpt>
      <trkpt lat="37.113070" lon="-119.744170">
        <ele>412.115</ele>
        <time>2018-12-28T19:23:55Z</time>
      </trkpt>
      <trkpt lat="37.107870" lon="-119.745020">
        <ele>376.808</ele>
        <time>2018-12-28T19:24:15Z</time>
      </trkpt>
      <trkpt lat="37.105810" lon="-119.745340">
        <ele>370.637</ele>
        <time>2018-12-28T19:24:35Z</time>
      </trkpt>
      <trkpt lat="37.105120" lon="-119.745460">
        <ele>365.385</ele>
        <time>2018-12-28T19:24:55Z</time>
      </trkpt>
      <trkpt lat="37.104600" lon="-119.745540">
        <ele>363.930</ele>
        <time>2018-12-28T19:25:15Z</time>
      </trkpt>
      <trkpt lat="37.104160" lon="-119.745610">
        <ele>364.430</ele>
        <time>2018-12-28T19:25:35Z</time>
      </trkpt>
      <trkpt lat="37.103880" lon="-119.745660">
        <ele>362.934</ele>
        <time>2018-12-28T19:25:55Z</time>
      </trkpt>
      <trkpt lat="37.103520" lon="-119.745740">
        <ele>361.874</ele>
        <time>2018-12-28T19:26:15Z</time>
      </trkpt>
      <trkpt lat="37.103280" lon="-119.745790">
        <ele>362.190</ele>
        <time>2018-12-28T19:26:35Z</time>
      </trkpt>
      <trkpt lat="37.103080" lon="-119.745830">
        <ele>362.769</ele>
        <time>2018-12-28T19:26:55Z</time>
      </trkpt>
      <trkpt lat="37.102920" lon="-119.745880">
        <ele>363.127</ele>
        <time>2018-12-28T19:27:15Z</time>
      </trkpt>
      <trkpt lat="37.102770" lon="-119.745920">
        <ele>361.868</ele>
        <time>2018-12-28T19:27:35Z</time>
      </trkpt>
      <trkpt lat="37.102580" lon="-119.745980">
        <ele>360.214</ele>
        <time>2018-12-28T19:27:55Z</time>
      </trkpt>
      <trkpt lat="37.102360" lon="-119.746050">
        <ele>359.208</ele>
        <time>2018-12-28T19:28:15Z</time>
      </trkpt>
      <trkpt lat="37.102160" lon="-119.746130">
        <ele>358.455</ele>
        <time>2018-12-28T19:28:35Z</time>
      </trkpt>
      <trkpt lat="37.101990" lon="-119.746190">
        <ele>358.063</ele>
        <time>2018-12-28T19:28:55Z</time>
      </trkpt>
      <trkpt lat="37.101780" lon="-119.746270">
        <ele>357.878</ele>
        <time>2018-12-28T19:29:15Z</time>
      </trkpt>
      <trkpt lat="37.101580" lon="-119.746360">
        <ele>356.478</ele>
        <time>2018-12-28T19:29:35Z</time>
      </trkpt>
      <trkpt lat="37.101390" lon="-119.746440">
        <ele>355.722</ele>
        <time>2018-12-28T19:29:55Z</time>
      </trkpt>
      <trkpt lat="37.101150" lon="-119.746540">
        <ele>355.062</ele>
        <time>2018-12-28T19:30:15Z</time>
      </trkpt>
      <trkpt lat="37.100900" lon="-119.746660">
        <ele>355.258</ele>
        <time>2018-12-28T19:30:35Z</time>
      </trkpt>
      <trkpt lat="37.100740" lon="-119.746740">
        <ele>355.427</ele>
        <time>2018-12-28T19:30:55Z</time>
      </trkpt>
      <trkpt lat="37.100570" lon="-119.746820">
        <ele>355.272</ele>
        <time>2018-12-28T19:31:15Z</time>
      </trkpt>
      <trkpt lat="37.100410" lon="-119.746910">
        <ele>355.713</ele>
        <time>2018-12-28T19:31:35Z</time>
      </trkpt>
      <trkpt lat="37.100220" lon="-119.747020">
        <ele>355.814</ele>
        <time>2018-12-28T19:31:55Z</time>
      </trkpt>
      <trkpt lat="37.100050" lon="-119.747110">
        <ele>354.108</ele>
        <time>2018-12-28T19:32:15Z</time>
      </trkpt>
      <trkpt lat="37.099910" lon="-119.747210">
        <ele>352.050</ele>
        <time>2018-12-28T19:32:35Z</time>
      </trkpt>
      <trkpt lat="37.099730" lon="-119.747320">
        <ele>350.748</ele>
        <time>2018-12-28T19:32:55Z</time>
      </trkpt>
      <trkpt lat="37.099480" lon="-119.747490">
        <ele>349.693</ele>
        <time>2018-12-28T19:33:15Z</time>
      </trkpt>
      <trkpt lat="37.099270" lon="-119.747620">
        <ele>352.553</ele>
        <time>2018-12-28T19:33:35Z</time>
      </trkpt>
      <trkpt lat="37.099070" lon="-119.747750">
        <ele>353.747</ele>
        <time>2018-12-28T19:33:55Z</time>
      </trkpt>
      <trkpt lat="37.098820" lon="-119.747950">
        <ele>350.437</ele>
        <time>2018-12-28T19:34:15Z</time>
      </trkpt>
      <trkpt lat="37.098550" lon="-119.748160">
        <ele>346.983</ele>
        <time>2018-12-28T19:34:35Z</time>
      </trkpt>
      <trkpt lat="37.098290" lon="-119.748380">
        <ele>346.542</ele>
        <time>2018-12-28T19:34:55Z</time>
      </trkpt>
      <trkpt lat="37.098070" lon="-119.748560">
        <ele>345.426</ele>
        <time>2018-12-28T19:35:15Z</time>
      </trkpt>
      <trkpt lat="37.097810" lon="-119.748790">
        <ele>344.847</ele>
        <time>2018-12-28T19:35:35Z</time>
      </trkpt>
      <trkpt lat="37.097580" lon="-119.749010">
        <ele>344.611</ele>
        <time>2018-12-28T19:35:55Z</time>
      </trkpt>
      <trkpt lat="37.097350" lon="-119.749240">
        <ele>344.208</ele>
        <time>2018-12-28T19:36:15Z</time>
      </trkpt>
      <trkpt lat="37.097120" lon="-119.749470">
        <ele>344.535</ele>
        <time>2018-12-28T19:36:35Z</time>
      </trkpt>
      <trkpt lat="37.096950" lon="-119.749650">
        <ele>345.263</ele>
        <time>2018-12-28T19:36:55Z</time>
      </trkpt>
      <trkpt lat="37.096730" lon="-119.749890">
        <ele>344.548</ele>
        <time>2018-12-28T19:37:15Z</time>
      </trkpt>
      <trkpt lat="37.096510" lon="-119.750150">
        <ele>341.198</ele>
        <time>2018-12-28T19:37:35Z</time>
      </trkpt>
      <trkpt lat="37.096250" lon="-119.750470">
        <ele>338.352</ele>
        <time>2018-12-28T19:37:55Z</time>
      </trkpt>
      <trkpt lat="37.095950" lon="-119.750840">
        <ele>337.232</ele>
        <time>2018-12-28T19:38:15Z</time>
      </trkpt>
      <trkpt lat="37.095650" lon="-119.751220">
        <ele>336.748</ele>
        <time>2018-12-28T19:38:35Z</time>
      </trkpt>
      <trkpt lat="37.095350" lon="-119.751590">
        <ele>335.257</ele>
        <time>2018-12-28T19:38:55Z</time>
      </trkpt>
      <trkpt lat="37.095200" lon="-119.751800">
        <ele>332.458</ele>
        <time>2018-12-28T19:39:15Z</time>
      </trkpt>
      <trkpt lat="37.095090" lon="-119.751930">
        <ele>332.852</ele>
        <time>2018-12-28T19:39:35Z</time>
      </trkpt>
      <trkpt lat="37.095020" lon="-119.752020">
        <ele>333.117</ele>
        <time>2018-12-28T19:39:55Z</time>
      </trkpt>
      <trkpt lat="37.094890" lon="-119.752160">
        <ele>334.708</ele>
        <time>2018-12-28T19:40:15Z</time>
      </trkpt>
      <trkpt lat="37.094610" lon="-119.752490">
        <ele>333.678</ele>
        <time>2018-12-28T19:40:35Z</time>
      </trkpt>
      <trkpt lat="37.094420" lon="-119.752630">
        <ele>332.396</ele>
        <time>2018-12-28T19:40:55Z</time>
      </trkpt>
      <trkpt lat="37.094260" lon="-119.752770">
        <ele>331.581</ele>
        <time>2018-12-28T19:41:15Z</time>
      </trkpt>
      <trkpt lat="37.094130" lon="-119.752880">
        <ele>331.741</ele>
        <time>2018-12-28T19:41:35Z</time>
      </trkpt>
      <trkpt lat="37.093970" lon="-119.752990">
        <ele>332.155</ele>
        <time>2018-12-28T19:41:55Z</time>
      </trkpt>
      <trkpt lat="37.093800" lon="-119.753110">
        <ele>332.225</ele>
        <time>2018-12-28T19:42:15Z</time>
      </trkpt>
      <trkpt lat="37.093670" lon="-119.753190">
        <ele>331.731</ele>
        <time>2018-12-28T19:42:35Z</time>
      </trkpt>
      <trkpt lat="37.093490" lon="-119.753290">
        <ele>329.460</ele>
        <time>2018-12-28T19:42:55Z</time>
      </trkpt>
      <trkpt lat="37.093350" lon="-119.753380">
        <ele>327.436</ele>
        <time>2018-12-28T19:43:15Z</time>
      </trkpt>
      <trkpt lat="37.093200" lon="-119.753450">
        <ele>326.217</ele>
        <time>2018-12-28T19:43:35Z</time>
      </trkpt>
      <trkpt lat="37.093050" lon="-119.753510">
        <ele>327.618</ele>
        <time>2018-12-28T19:43:55Z</time>
      </trkpt>
      <trkpt lat="37.092880" lon="-119.753580">
        <ele>328.708</ele>
        <time>2018-12-28T19:44:15Z</time>
      </trkpt>
      <trkpt lat="37.092680" lon="-119.753660">
        <ele>326.926</ele>
        <time>2018-12-28T19:44:35Z</time>
      </trkpt>
      <trkpt lat="37.092550" lon="-119.753700">
        <ele>325.664</ele>
        <time>2018-12-28T19:44:55Z</time>
      </trkpt>
      <trkpt lat="37.092360" lon="-119.753750">
        <ele>323.789</ele>
        <time>2018-12-28T19:45:15Z</time>
      </trkpt>
      <trkpt lat="37.092140" lon="-119.753810">
        <ele>323.669</ele>
        <time>2018-12-28T19:45:35Z</time>
      </trkpt>
      <trkpt lat="37.091910" lon="-119.753870">
        <ele>320.853</ele>
        <time>2018-12-28T19:45:55Z</time>
      </trkpt>
      <trkpt lat="37.091660" lon="-119.753930">
        <ele>318.793</ele>
        <time>2018-12-28T19:46:15Z</time>
      </trkpt>
      <trkpt lat="37.090880" lon="-119.754110">
        <ele>312.629</ele>
        <time>2018-12-28T19:46:35Z</time>
      </trkpt>
      <trkpt lat="37.090500" lon="-119.754190">
        <ele>312.178</ele>
        <time>2018-12-28T19:46:55Z</time>
      </trkpt>
      <trkpt lat="37.090130" lon="-119.754280">
        <ele>305.427</ele>
        <time>2018-12-28T19:47:15Z</time>
      </trkpt>
      <trkpt lat="37.089660" lon="-119.754410">
        <ele>300.368</ele>
        <time>2018-12-28T19:47:35Z</time>
      </trkpt>
      <trkpt lat="37.089400" lon="-119.754480">
        <ele>299.314</ele>
        <time>2018-12-28T19:47:55Z</time>
      </trkpt>
      <trkpt lat="37.089090" lon="-119.754580">
        <ele>297.208</ele>
        <time>2018-12-28T19:48:15Z</time>
      </trkpt>
      <trkpt lat="37.088880" lon="-119.754660">
        <ele>296.325</ele>
        <time>2018-12-28T19:48:35Z</time>
      </trkpt>
      <trkpt lat="37.088670" lon="-119.754760">
        <ele>294.613</ele>
        <time>2018-12-28T19:48:55Z</time>
      </trkpt>
      <trkpt lat="37.088480" lon="-119.754850">
        <ele>292.278</ele>
        <time>2018-12-28T19:49:15Z</time>
      </trkpt>
      <trkpt lat="37.088440" lon="-119.754860">
        <ele>291.938</ele>
        <time>2018-12-28T19:49:35Z</time>
      </trkpt>
      <trkpt lat="37.087850" lon="-119.755200">
        <ele>287.812</ele>
        <time>2018-12-28T19:49:55Z</time>
      </trkpt>
      <trkpt lat="37.087110" lon="-119.755640">
        <ele>280.032</ele>
        <time>2018-12-28T19:50:15Z</time>
      </trkpt>
      <trkpt lat="37.086890" lon="-119.755770">
        <ele>279.538</ele>
        <time>2018-12-28T19:50:35Z</time>
      </trkpt>
      <trkpt lat="37.086800" lon="-119.755820">
        <ele>279.437</ele>
        <time>2018-12-28T19:50:55Z</time>
      </trkpt>
      <trkpt lat="37.086610" lon="-119.755950">
        <ele>276.775</ele>
        <time>2018-12-28T19:51:15Z</time>
      </trkpt>
      <trkpt lat="37.086330" lon="-119.756120">
        <ele>273.228</ele>
        <time>2018-12-28T19:51:35Z</time>
      </trkpt>
      <trkpt lat="37.086080" lon="-119.756270">
        <ele>270.320</ele>
        <time>2018-12-28T19:51:55Z</time>
      </trkpt>
      <trkpt lat="37.085850" lon="-119.756410">
        <ele>267.308</ele>
        <time>2018-12-28T19:52:15Z</time>
      </trkpt>
      <trkpt lat="37.085700" lon="-119.756500">
        <ele>266.120</ele>
        <time>2018-12-28T19:52:35Z</time>
      </trkpt>
      <trkpt lat="37.085530" lon="-119.756600">
        <ele>264.988</ele>
        <time>2018-12-28T19:52:55Z</time>
      </trkpt>
      <trkpt lat="37.085330" lon="-119.756720">
        <ele>263.643</ele>
        <time>2018-12-28T19:53:15Z</time>
      </trkpt>
      <trkpt lat="37.085160" lon="-119.756820">
        <ele>263.163</ele>
        <time>2018-12-28T19:53:35Z</time>
      </trkpt>
      <trkpt lat="37.085030" lon="-119.756890">
        <ele>262.827</ele>
        <time>2018-12-28T19:53:55Z</time>
      </trkpt>
      <trkpt lat="37.084890" lon="-119.756960">
        <ele>262.887</ele>
        <time>2018-12-28T19:54:15Z</time>
      </trkpt>
      <trkpt lat="37.084770" lon="-119.757010">
        <ele>263.243</ele>
        <time>2018-12-28T19:54:35Z</time>
      </trkpt>
      <trkpt lat="37.084590" lon="-119.757080">
        <ele>264.572</ele>
        <time>2018-12-28T19:54:55Z</time>
      </trkpt>
      <trkpt lat="37.084400" lon="-119.757150">
        <ele>265.432</ele>
        <time>2018-12-28T19:55:15Z</time>
      </trkpt>
      <trkpt lat="37.084250" lon="-119.757200">
        <ele>266.592</ele>
        <time>2018-12-28T19:55:35Z</time>
      </trkpt>
      <trkpt lat="37.084080" lon="-119.757240">
        <ele>266.911</ele>
        <time>2018-12-28T19:55:55Z</time>
      </trkpt>
      <trkpt lat="37.083960" lon="-119.757270">
        <ele>267.308</ele>
        <time>2018-12-28T19:56:15Z</time>
      </trkpt>
      <trkpt lat="37.083860" lon="-119.757300">
        <ele>267.726</ele>
        <time>2018-12-28T19:56:35Z</time>
      </trkpt>
      <trkpt lat="37.083720" lon="-119.757320">
        <ele>268.134</ele>
        <time>2018-12-28T19:56:55Z</time>
      </trkpt>
      <trkpt lat="37.083350" lon="-119.757370">
        <ele>269.029</ele>
        <time>2018-12-28T19:57:15Z</time>
      </trkpt>
      <trkpt lat="37.083130" lon="-119.757400">
        <ele>268.989</ele>
        <time>2018-12-28T19:57:35Z</time>
      </trkpt>
      <trkpt lat="37.082870" lon="-119.757440">
        <ele>267.673</ele>
        <time>2018-12-28T19:57:55Z</time>
      </trkpt>
      <trkpt lat="37.082710" lon="-119.757460">
        <ele>266.813</ele>
        <time>2018-12-28T19:58:15Z</time>
      </trkpt>
      <trkpt lat="37.082560" lon="-119.757480">
        <ele>267.149</ele>
        <time>2018-12-28T19:58:35Z</time>
      </trkpt>
      <trkpt lat="37.082400" lon="-119.757510">
        <ele>268.338</ele>
        <time>2018-12-28T19:58:55Z</time>
      </trkpt>
      <trkpt lat="37.082250" lon="-119.757530">
        <ele>268.191</ele>
        <time>2018-12-28T19:59:15Z</time>
      </trkpt>
      <trkpt lat="37.082100" lon="-119.757560">
        <ele>267.581</ele>
        <time>2018-12-28T19:59:35Z</time>
      </trkpt>
      <trkpt lat="37.081880" lon="-119.757630">
        <ele>266.619</ele>
        <time>2018-12-28T19:59:55Z</time>
      </trkpt>
      <trkpt lat="37.081670" lon="-119.757690">
        <ele>266.408</ele>
        <time>2018-12-28T20:00:15Z</time>
      </trkpt>
      <trkpt lat="37.081530" lon="-119.757740">
        <ele>266.212</ele>
        <time>2018-12-28T20:00:35Z</time>
      </trkpt>
      <trkpt lat="37.081390" lon="-119.757790">
        <ele>266.830</ele>
        <time>2018-12-28T20:00:55Z</time>
      </trkpt>
      <trkpt lat="37.081240" lon="-119.757860">
        <ele>267.445</ele>
        <time>2018-12-28T20:01:15Z</time>
      </trkpt>
      <trkpt lat="37.081120" lon="-119.757920">
        <ele>266.345</ele>
        <time>2018-12-28T20:01:35Z</time>
      </trkpt>
      <trkpt lat="37.080960" lon="-119.758010">
        <ele>265.129</ele>
        <time>2018-12-28T20:01:55Z</time>
      </trkpt>
      <trkpt lat="37.080750" lon="-119.758140">
        <ele>261.759</ele>
        <time>2018-12-28T20:02:15Z</time>
      </trkpt>
      <trkpt lat="37.080570" lon="-119.758260">
        <ele>259.195</ele>
        <time>2018-12-28T20:02:35Z</time>
      </trkpt>
      <trkpt lat="37.080380" lon="-119.758390">
        <ele>256.994</ele>
        <time>2018-12-28T20:02:55Z</time>
      </trkpt>
      <trkpt lat="37.080220" lon="-119.758510">
        <ele>257.757</ele>
        <time>2018-12-28T20:03:15Z</time>
      </trkpt>
      <trkpt lat="37.080040" lon="-119.758650">
        <ele>257.300</ele>
        <time>2018-12-28T20:03:35Z</time>
      </trkpt>
      <trkpt lat="37.079850" lon="-119.758810">
        <ele>257.120</ele>
        <time>2018-12-28T20:03:55Z</time>
      </trkpt>
      <trkpt lat="37.079720" lon="-119.758930">
        <ele>255.608</ele>
        <time>2018-12-28T20:04:15Z</time>
      </trkpt>
      <trkpt lat="37.079560" lon="-119.759080">
        <ele>255.588</ele>
        <time>2018-12-28T20:04:35Z</time>
      </trkpt>
      <trkpt lat="37.079380" lon="-119.759240">
        <ele>254.456</ele>
        <time>2018-12-28T20:04:55Z</time>
      </trkpt>
      <trkpt lat="37.079190" lon="-119.759400">
        <ele>254.781</ele>
        <time>2018-12-28T20:05:15Z</time>
      </trkpt>
      <trkpt lat="37.079020" lon="-119.759550">
        <ele>254.931</ele>
        <time>2018-12-28T20:05:35Z</time>
      </trkpt>
      <trkpt lat="37.078860" lon="-119.759710">
        <ele>253.315</ele>
        <time>2018-12-28T20:05:55Z</time>
      </trkpt>
      <trkpt lat="37.078660" lon="-119.759900">
        <ele>249.115</ele>
        <time>2018-12-28T20:06:15Z</time>
      </trkpt>
      <trkpt lat="37.078510" lon="-119.760050">
        <ele>245.921</ele>
        <time>2018-12-28T20:06:35Z</time>
      </trkpt>
      <trkpt lat="37.078390" lon="-119.760170">
        <ele>244.720</ele>
        <time>2018-12-28T20:06:55Z</time>
      </trkpt>
      <trkpt lat="37.078220" lon="-119.760320">
        <ele>244.213</ele>
        <time>2018-12-28T20:07:15Z</time>
      </trkpt>
      <trkpt lat="37.078050" lon="-119.760470">
        <ele>244.243</ele>
        <time>2018-12-28T20:07:35Z</time>
      </trkpt>
      <trkpt lat="37.077920" lon="-119.760590">
        <ele>244.807</ele>
        <time>2018-12-28T20:07:55Z</time>
      </trkpt>
      <trkpt lat="37.077810" lon="-119.760680">
        <ele>244.908</ele>
        <time>2018-12-28T20:08:15Z</time>
      </trkpt>
      <trkpt lat="37.077680" lon="-119.760780">
        <ele>245.574</ele>
        <time>2018-12-28T20:08:35Z</time>
      </trkpt>
      <trkpt lat="37.077570" lon="-119.760870">
        <ele>245.012</ele>
        <time>2018-12-28T20:08:55Z</time>
      </trkpt>
      <trkpt lat="37.077460" lon="-119.760950">
        <ele>244.917</ele>
        <time>2018-12-28T20:09:15Z</time>
      </trkpt>
      <trkpt lat="37.077350" lon="-119.761030">
        <ele>244.637</ele>
        <time>2018-12-28T20:09:35Z</time>
      </trkpt>
      <trkpt lat="37.077200" lon="-119.761120">
        <ele>244.321</ele>
        <time>2018-12-28T20:09:55Z</time>
      </trkpt>
      <trkpt lat="37.077140" lon="-119.761160">
        <ele>244.481</ele>
        <time>2018-12-28T20:10:15Z</time>
      </trkpt>
      <trkpt lat="37.077070" lon="-119.761190">
        <ele>244.687</ele>
        <time>2018-12-28T20:10:35Z</time>
      </trkpt>
      <trkpt lat="37.076930" lon="-119.761260">
        <ele>245.446</ele>
        <time>2018-12-28T20:10:55Z</time>
      </trkpt>
      <trkpt lat="37.076810" lon="-119.761320">
        <ele>245.183</ele>
        <time>2018-12-28T20:11:15Z</time>
      </trkpt>
      <trkpt lat="37.076710" lon="-119.761350">
        <ele>244.525</ele>
        <time>2018-12-28T20:11:35Z</time>
      </trkpt>
      <trkpt lat="37.076560" lon="-119.761410">
        <ele>244.417</ele>
        <time>2018-12-28T20:11:55Z</time>
      </trkpt>
      <trkpt lat="37.076480" lon="-119.761430">
        <ele>245.008</ele>
        <time>2018-12-28T20:12:15Z</time>
      </trkpt>
      <trkpt lat="37.076420" lon="-119.761450">
        <ele>245.911</ele>
        <time>2018-12-28T20:12:35Z</time>
      </trkpt>
      <trkpt lat="37.076360" lon="-119.761460">
        <ele>246.889</ele>
        <time>2018-12-28T20:12:55Z</time>
      </trkpt>
      <trkpt lat="37.076060" lon="-119.761510">
        <ele>250.634</ele>
        <time>2018-12-28T20:13:15Z</time>
      </trkpt>
      <trkpt lat="37.075890" lon="-119.761540">
        <ele>251.764</ele>
        <time>2018-12-28T20:13:35Z</time>
      </trkpt>
      <trkpt lat="37.075750" lon="-119.761570">
        <ele>252.018</ele>
        <time>2018-12-28T20:13:55Z</time>
      </trkpt>
      <trkpt lat="37.075530" lon="-119.761600">
        <ele>253.478</ele>
        <time>2018-12-28T20:14:15Z</time>
      </trkpt>
      <trkpt lat="37.075390" lon="-119.761630">
        <ele>254.844</ele>
        <time>2018-12-28T20:14:35Z</time>
      </trkpt>
      <trkpt lat="37.075120" lon="-119.761680">
        <ele>257.133</ele>
        <time>2018-12-28T20:14:55Z</time>
      </trkpt>
      <trkpt lat="37.074750" lon="-119.761750">
        <ele>256.625</ele>
        <time>2018-12-28T20:15:15Z</time>
      </trkpt>
      <trkpt lat="37.074530" lon="-119.761790">
        <ele>255.626</ele>
        <time>2018-12-28T20:15:35Z</time>
      </trkpt>
      <trkpt lat="37.074310" lon="-119.761830">
        <ele>256.308</ele>
        <time>2018-12-28T20:15:55Z</time>
      </trkpt>
      <trkpt lat="37.074180" lon="-119.761860">
        <ele>258.008</ele>
        <time>2018-12-28T20:16:15Z</time>
      </trkpt>
      <trkpt lat="37.073830" lon="-119.761970">
        <ele>258.915</ele>
        <time>2018-12-28T20:16:35Z</time>
      </trkpt>
      <trkpt lat="37.073610" lon="-119.762050">
        <ele>256.113</ele>
        <time>2018-12-28T20:16:55Z</time>
      </trkpt>
      <trkpt lat="37.073480" lon="-119.762110">
        <ele>255.628</ele>
        <time>2018-12-28T20:17:15Z</time>
      </trkpt>
      <trkpt lat="37.073360" lon="-119.762160">
        <ele>256.558</ele>
        <time>2018-12-28T20:17:35Z</time>
      </trkpt>
      <trkpt lat="37.073240" lon="-119.762230">
        <ele>255.272</ele>
        <time>2018-12-28T20:17:55Z</time>
      </trkpt>
      <trkpt lat="37.073120" lon="-119.762310">
        <ele>252.562</ele>
        <time>2018-12-28T20:18:15Z</time>
      </trkpt>
      <trkpt lat="37.072920" lon="-119.762420">
        <ele>250.488</ele>
        <time>2018-12-28T20:18:35Z</time>
      </trkpt>
      <trkpt lat="37.072800" lon="-119.762490">
        <ele>250.857</ele>
        <time>2018-12-28T20:18:55Z</time>
      </trkpt>
      <trkpt lat="37.072700" lon="-119.762560">
        <ele>250.534</ele>
        <time>2018-12-28T20:19:15Z</time>
      </trkpt>
      <trkpt lat="37.072550" lon="-119.762670">
        <ele>249.155</ele>
        <time>2018-12-28T20:19:35Z</time>
      </trkpt>
      <trkpt lat="37.072370" lon="-119.762810">
        <ele>246.010</ele>
        <time>2018-12-28T20:19:55Z</time>
      </trkpt>
      <trkpt lat="37.072240" lon="-119.762930">
        <ele>243.708</ele>
        <time>2018-12-28T20:20:15Z</time>
      </trkpt>
      <trkpt lat="37.072040" lon="-119.763110">
        <ele>240.146</ele>
        <time>2018-12-28T20:20:35Z</time>
      </trkpt>
      <trkpt lat="37.071910" lon="-119.763240">
        <ele>239.694</ele>
        <time>2018-12-28T20:20:55Z</time>
      </trkpt>
      <trkpt lat="37.071770" lon="-119.763390">
        <ele>238.569</ele>
        <time>2018-12-28T20:21:15Z</time>
      </trkpt>
      <trkpt lat="37.071630" lon="-119.763530">
        <ele>235.529</ele>
        <time>2018-12-28T20:21:35Z</time>
      </trkpt>
      <trkpt lat="37.071520" lon="-119.763660">
        <ele>233.043</ele>
        <time>2018-12-28T20:21:55Z</time>
      </trkpt>
      <trkpt lat="37.071390" lon="-119.763830">
        <ele>231.133</ele>
        <time>2018-12-28T20:22:15Z</time>
      </trkpt>
      <trkpt lat="37.071260" lon="-119.764010">
        <ele>232.339</ele>
        <time>2018-12-28T20:22:35Z</time>
      </trkpt>
      <trkpt lat="37.071130" lon="-119.764190">
        <ele>232.948</ele>
        <time>2018-12-28T20:22:55Z</time>
      </trkpt>
      <trkpt lat="37.070920" lon="-119.764470">
        <ele>232.077</ele>
        <time>2018-12-28T20:23:15Z</time>
      </trkpt>
      <trkpt lat="37.070690" lon="-119.764770">
        <ele>228.961</ele>
        <time>2018-12-28T20:23:35Z</time>
      </trkpt>
      <trkpt lat="37.070530" lon="-119.764960">
        <ele>227.127</ele>
        <time>2018-12-28T20:23:55Z</time>
      </trkpt>
      <trkpt lat="37.070380" lon="-119.765130">
        <ele>225.108</ele>
        <time>2018-12-28T20:24:15Z</time>
      </trkpt>
      <trkpt lat="37.070280" lon="-119.765250">
        <ele>223.520</ele>
        <time>2018-12-28T20:24:35Z</time>
      </trkpt>
      <trkpt lat="37.070030" lon="-119.765470">
        <ele>221.348</ele>
        <time>2018-12-28T20:24:55Z</time>
      </trkpt>
      <trkpt lat="37.069960" lon="-119.765550">
        <ele>220.933</ele>
        <time>2018-12-28T20:25:15Z</time>
      </trkpt>
      <trkpt lat="37.069820" lon="-119.765660">
        <ele>220.013</ele>
        <time>2018-12-28T20:25:35Z</time>
      </trkpt>
      <trkpt lat="37.069730" lon="-119.765720">
        <ele>219.337</ele>
        <time>2018-12-28T20:25:55Z</time>
      </trkpt>
      <trkpt lat="37.069580" lon="-119.765830">
        <ele>217.227</ele>
        <time>2018-12-28T20:26:15Z</time>
      </trkpt>
      <trkpt lat="37.069310" lon="-119.765990">
        <ele>214.933</ele>
        <time>2018-12-28T20:26:35Z</time>
      </trkpt>
      <trkpt lat="37.069130" lon="-119.766100">
        <ele>214.222</ele>
        <time>2018-12-28T20:26:55Z</time>
      </trkpt>
      <trkpt lat="37.068900" lon="-119.766230">
        <ele>214.295</ele>
        <time>2018-12-28T20:27:15Z</time>
      </trkpt>
      <trkpt lat="37.068660" lon="-119.766350">
        <ele>214.349</ele>
        <time>2018-12-28T20:27:35Z</time>
      </trkpt>
      <trkpt lat="37.068450" lon="-119.766440">
        <ele>215.623</ele>
        <time>2018-12-28T20:27:55Z</time>
      </trkpt>
      <trkpt lat="37.068280" lon="-119.766540">
        <ele>219.208</ele>
        <time>2018-12-28T20:28:15Z</time>
      </trkpt>
      <trkpt lat="37.068140" lon="-119.766610">
        <ele>220.212</ele>
        <time>2018-12-28T20:28:35Z</time>
      </trkpt>
      <trkpt lat="37.067720" lon="-119.766770">
        <ele>220.180</ele>
        <time>2018-12-28T20:28:55Z</time>
      </trkpt>
      <trkpt lat="37.067380" lon="-119.766920">
        <ele>219.755</ele>
        <time>2018-12-28T20:29:15Z</time>
      </trkpt>
      <trkpt lat="37.067210" lon="-119.766980">
        <ele>219.935</ele>
        <time>2018-12-28T20:29:35Z</time>
      </trkpt>
      <trkpt lat="37.067030" lon="-119.767060">
        <ele>220.669</ele>
        <time>2018-12-28T20:29:55Z</time>
      </trkpt>
      <trkpt lat="37.066850" lon="-119.767140">
        <ele>221.929</ele>
        <time>2018-12-28T20:30:15Z</time>
      </trkpt>
      <trkpt lat="37.066700" lon="-119.767210">
        <ele>223.765</ele>
        <time>2018-12-28T20:30:35Z</time>
      </trkpt>
      <trkpt lat="37.066390" lon="-119.767340">
        <ele>225.694</ele>
        <time>2018-12-28T20:30:55Z</time>
      </trkpt>
      <trkpt lat="37.066010" lon="-119.767500">
        <ele>225.497</ele>
        <time>2018-12-28T20:31:15Z</time>
      </trkpt>
      <trkpt lat="37.065760" lon="-119.767600">
        <ele>225.523</ele>
        <time>2018-12-28T20:31:35Z</time>
      </trkpt>
      <trkpt lat="37.065500" lon="-119.767710">
        <ele>225.925</ele>
        <time>2018-12-28T20:31:55Z</time>
      </trkpt>
      <trkpt lat="37.065260" lon="-119.767810">
        <ele>226.008</ele>
        <time>2018-12-28T20:32:15Z</time>
      </trkpt>
      <trkpt lat="37.065010" lon="-119.767900">
        <ele>224.912</ele>
        <time>2018-12-28T20:32:35Z</time>
      </trkpt>
      <trkpt lat="37.064770" lon="-119.768000">
        <ele>224.180</ele>
        <time>2018-12-28T20:32:55Z</time>
      </trkpt>
      <trkpt lat="37.064480" lon="-119.768110">
        <ele>223.475</ele>
        <time>2018-12-28T20:33:15Z</time>
      </trkpt>
      <trkpt lat="37.064380" lon="-119.768150">
        <ele>223.145</ele>
        <time>2018-12-28T20:33:35Z</time>
      </trkpt>
      <trkpt lat="37.064120" lon="-119.768260">
        <ele>223.029</ele>
        <time>2018-12-28T20:33:55Z</time>
      </trkpt>
      <trkpt lat="37.063750" lon="-119.768430">
        <ele>226.969</ele>
        <time>2018-12-28T20:34:15Z</time>
      </trkpt>
      <trkpt lat="37.063500" lon="-119.768540">
        <ele>227.225</ele>
        <time>2018-12-28T20:34:35Z</time>
      </trkpt>
      <trkpt lat="37.062900" lon="-119.768790">
        <ele>229.044</ele>
        <time>2018-12-28T20:34:55Z</time>
      </trkpt>
      <trkpt lat="37.062630" lon="-119.768920">
        <ele>231.599</ele>
        <time>2018-12-28T20:35:15Z</time>
      </trkpt>
      <trkpt lat="37.062370" lon="-119.769020">
        <ele>231.007</ele>
        <time>2018-12-28T20:35:35Z</time>
      </trkpt>
      <trkpt lat="37.062170" lon="-119.769100">
        <ele>229.227</ele>
        <time>2018-12-28T20:35:55Z</time>
      </trkpt>
      <trkpt lat="37.061880" lon="-119.769240">
        <ele>230.808</ele>
        <time>2018-12-28T20:36:15Z</time>
      </trkpt>
      <trkpt lat="37.061750" lon="-119.769290">
        <ele>231.062</ele>
        <time>2018-12-28T20:36:35Z</time>
      </trkpt>
      <trkpt lat="37.061640" lon="-119.769340">
        <ele>229.820</ele>
        <time>2018-12-28T20:36:55Z</time>
      </trkpt>
      <trkpt lat="37.061420" lon="-119.769430">
        <ele>227.765</ele>
        <time>2018-12-28T20:37:15Z</time>
      </trkpt>
      <trkpt lat="37.061250" lon="-119.769510">
        <ele>226.315</ele>
        <time>2018-12-28T20:37:35Z</time>
      </trkpt>
      <trkpt lat="37.061000" lon="-119.769630">
        <ele>226.579</ele>
        <time>2018-12-28T20:37:55Z</time>
      </trkpt>
      <trkpt lat="37.060640" lon="-119.769820">
        <ele>227.139</ele>
        <time>2018-12-28T20:38:15Z</time>
      </trkpt>
      <trkpt lat="37.060440" lon="-119.769930">
        <ele>228.455</ele>
        <time>2018-12-28T20:38:35Z</time>
      </trkpt>
      <trkpt lat="37.060030" lon="-119.770130">
        <ele>227.644</ele>
        <time>2018-12-28T20:38:55Z</time>
      </trkpt>
      <trkpt lat="37.059790" lon="-119.770260">
        <ele>226.723</ele>
        <time>2018-12-28T20:39:15Z</time>
      </trkpt>
      <trkpt lat="37.059610" lon="-119.770350">
        <ele>225.783</ele>
        <time>2018-12-28T20:39:35Z</time>
      </trkpt>
      <trkpt lat="37.059180" lon="-119.770550">
        <ele>222.511</ele>
        <time>2018-12-28T20:39:55Z</time>
      </trkpt>
      <trkpt lat="37.058700" lon="-119.770810">
        <ele>226.608</ele>
        <time>2018-12-28T20:40:15Z</time>
      </trkpt>
      <trkpt lat="37.057710" lon="-119.771320">
        <ele>226.355</ele>
        <time>2018-12-28T20:40:35Z</time>
      </trkpt>
      <trkpt lat="37.056740" lon="-119.771820">
        <ele>224.453</ele>
        <time>2018-12-28T20:40:55Z</time>
      </trkpt>
      <trkpt lat="37.056130" lon="-119.772120">
        <ele>221.618</ele>
        <time>2018-12-28T20:41:15Z</time>
      </trkpt>
      <trkpt lat="37.054420" lon="-119.773010">
        <ele>218.868</ele>
        <time>2018-12-28T20:41:35Z</time>
      </trkpt>
      <trkpt lat="37.053690" lon="-119.773380">
        <ele>216.672</ele>
        <time>2018-12-28T20:41:55Z</time>
      </trkpt>
      <trkpt lat="37.052960" lon="-119.773760">
        <ele>212.992</ele>
        <time>2018-12-28T20:42:15Z</time>
      </trkpt>
      <trkpt lat="37.052110" lon="-119.774190">
        <ele>205.588</ele>
        <time>2018-12-28T20:42:35Z</time>
      </trkpt>
      <trkpt lat="37.051860" lon="-119.774310">
        <ele>205.527</ele>
        <time>2018-12-28T20:42:55Z</time>
      </trkpt>
      <trkpt lat="37.051490" lon="-119.774510">
        <ele>207.949</ele>
        <time>2018-12-28T20:43:15Z</time>
      </trkpt>
      <trkpt lat="37.050650" lon="-119.774930">
        <ele>201.002</ele>
        <time>2018-12-28T20:43:35Z</time>
      </trkpt>
      <trkpt lat="37.049940" lon="-119.775290">
        <ele>196.622</ele>
        <time>2018-12-28T20:43:55Z</time>
      </trkpt>
      <trkpt lat="37.048840" lon="-119.775860">
        <ele>195.808</ele>
        <time>2018-12-28T20:44:15Z</time>
      </trkpt>
      <trkpt lat="37.048570" lon="-119.776000">
        <ele>195.927</ele>
        <time>2018-12-28T20:44:35Z</time>
      </trkpt>
      <trkpt lat="37.047970" lon="-119.776300">
        <ele>193.815</ele>
        <time>2018-12-28T20:44:55Z</time>
      </trkpt>
      <trkpt lat="37.047520" lon="-119.776530">
        <ele>192.570</ele>
        <time>2018-12-28T20:45:15Z</time>
      </trkpt>
      <trkpt lat="37.046690" lon="-119.776960">
        <ele>194.660</ele>
        <time>2018-12-28T20:45:35Z</time>
      </trkpt>
      <trkpt lat="37.046130" lon="-119.777250">
        <ele>194.794</ele>
        <time>2018-12-28T20:45:55Z</time>
      </trkpt>
      <trkpt lat="37.045400" lon="-119.777630">
        <ele>194.894</ele>
        <time>2018-12-28T20:46:15Z</time>
      </trkpt>
      <trkpt lat="37.044690" lon="-119.777980">
        <ele>189.560</ele>
        <time>2018-12-28T20:46:35Z</time>
      </trkpt>
      <trkpt lat="37.042980" lon="-119.778860">
        <ele>183.639</ele>
        <time>2018-12-28T20:46:55Z</time>
      </trkpt>
      <trkpt lat="37.042610" lon="-119.779060">
        <ele>182.854</ele>
        <time>2018-12-28T20:47:15Z</time>
      </trkpt>
      <trkpt lat="37.042310" lon="-119.779220">
        <ele>180.656</ele>
        <time>2018-12-28T20:47:35Z</time>
      </trkpt>
      <trkpt lat="37.042030" lon="-119.779370">
        <ele>177.511</ele>
        <time>2018-12-28T20:47:55Z</time>
      </trkpt>
      <trkpt lat="37.041150" lon="-119.779900">
        <ele>174.008</ele>
        <time>2018-12-28T20:48:15Z</time>
      </trkpt>
      <trkpt lat="37.040890" lon="-119.780060">
        <ele>172.368</ele>
        <time>2018-12-28T20:48:35Z</time>
      </trkpt>
      <trkpt lat="37.040380" lon="-119.780400">
        <ele>169.766</ele>
        <time>2018-12-28T20:48:55Z</time>
      </trkpt>
      <trkpt lat="37.039710" lon="-119.780860">
        <ele>166.791</ele>
        <time>2018-12-28T20:49:15Z</time>
      </trkpt>
      <trkpt lat="37.039330" lon="-119.781120">
        <ele>165.811</ele>
        <time>2018-12-28T20:49:35Z</time>
      </trkpt>
      <trkpt lat="37.038890" lon="-119.781430">
        <ele>164.485</ele>
        <time>2018-12-28T20:49:55Z</time>
      </trkpt>
      <trkpt lat="37.038140" lon="-119.781950">
        <ele>166.165</ele>
        <time>2018-12-28T20:50:15Z</time>
      </trkpt>
      <trkpt lat="37.037590" lon="-119.782340">
        <ele>165.471</ele>
        <time>2018-12-28T20:50:35Z</time>
      </trkpt>
      <trkpt lat="37.037560" lon="-119.782350">
        <ele>165.250</ele>
        <time>2018-12-28T20:50:55Z</time>
      </trkpt>
      <trkpt lat="37.037060" lon="-119.782710">
        <ele>164.376</ele>
        <time>2018-12-28T20:51:15Z</time>
      </trkpt>
      <trkpt lat="37.036470" lon="-119.783130">
        <ele>165.590</ele>
        <time>2018-12-28T20:51:35Z</time>
      </trkpt>
      <trkpt lat="37.036120" lon="-119.783370">
        <ele>164.719</ele>
        <time>2018-12-28T20:51:55Z</time>
      </trkpt>
      <trkpt lat="37.035780" lon="-119.783610">
        <ele>165.008</ele>
        <time>2018-12-28T20:52:15Z</time>
      </trkpt>
      <trkpt lat="37.035210" lon="-119.784010">
        <ele>164.160</ele>
        <time>2018-12-28T20:52:35Z</time>
      </trkpt>
      <trkpt lat="37.034750" lon="-119.784320">
        <ele>163.728</ele>
        <time>2018-12-28T20:52:55Z</time>
      </trkpt>
      <trkpt lat="37.033950" lon="-119.784880">
        <ele>163.293</ele>
        <time>2018-12-28T20:53:15Z</time>
      </trkpt>
      <trkpt lat="37.033610" lon="-119.785110">
        <ele>161.893</ele>
        <time>2018-12-28T20:53:35Z</time>
      </trkpt>
      <trkpt lat="37.033270" lon="-119.785350">
        <ele>160.927</ele>
        <time>2018-12-28T20:53:55Z</time>
      </trkpt>
      <trkpt lat="37.032700" lon="-119.785740">
        <ele>159.527</ele>
        <time>2018-12-28T20:54:15Z</time>
      </trkpt>
      <trkpt lat="37.031570" lon="-119.786530">
        <ele>164.263</ele>
        <time>2018-12-28T20:54:35Z</time>
      </trkpt>
      <trkpt lat="37.031110" lon="-119.786850">
        <ele>169.152</ele>
        <time>2018-12-28T20:54:55Z</time>
      </trkpt>
      <trkpt lat="37.030540" lon="-119.787250">
        <ele>171.417</ele>
        <time>2018-12-28T20:55:15Z</time>
      </trkpt>
      <trkpt lat="37.030080" lon="-119.787570">
        <ele>169.787</ele>
        <time>2018-12-28T20:55:35Z</time>
      </trkpt>
      <trkpt lat="37.029630" lon="-119.787870">
        <ele>165.615</ele>
        <time>2018-12-28T20:55:55Z</time>
      </trkpt>
      <trkpt lat="37.028240" lon="-119.788840">
        <ele>163.608</ele>
        <time>2018-12-28T20:56:15Z</time>
      </trkpt>
      <trkpt lat="37.027390" lon="-119.789400">
        <ele>159.924</ele>
        <time>2018-12-28T20:56:35Z</time>
      </trkpt>
      <trkpt lat="37.025370" lon="-119.790800">
        <ele>155.662</ele>
        <time>2018-12-28T20:56:55Z</time>
      </trkpt>
      <trkpt lat="37.024480" lon="-119.791420">
        <ele>153.547</ele>
        <time>2018-12-28T20:57:15Z</time>
      </trkpt>
      <trkpt lat="37.023880" lon="-119.791800">
        <ele>152.767</ele>
        <time>2018-12-28T20:57:35Z</time>
      </trkpt>
      <trkpt lat="37.023370" lon="-119.792100">
        <ele>151.411</ele>
        <time>2018-12-28T20:57:55Z</time>
      </trkpt>
      <trkpt lat="37.022930" lon="-119.792330">
        <ele>150.431</ele>
        <time>2018-12-28T20:58:15Z</time>
      </trkpt>
      <trkpt lat="37.022580" lon="-119.792510">
        <ele>149.927</ele>
        <time>2018-12-28T20:58:35Z</time>
      </trkpt>
      <trkpt lat="37.022180" lon="-119.792700">
        <ele>149.566</ele>
        <time>2018-12-28T20:58:55Z</time>
      </trkpt>
      <trkpt lat="37.021830" lon="-119.792850">
        <ele>149.141</ele>
        <time>2018-12-28T20:59:15Z</time>
      </trkpt>
      <trkpt lat="37.021160" lon="-119.793100">
        <ele>148.281</ele>
        <time>2018-12-28T20:59:35Z</time>
      </trkpt>
      <trkpt lat="37.020820" lon="-119.793220">
        <ele>147.709</ele>
        <time>2018-12-28T20:59:55Z</time>
      </trkpt>
      <trkpt lat="37.020750" lon="-119.793250">
        <ele>147.608</ele>
        <time>2018-12-28T21:00:15Z</time>
      </trkpt>
      <trkpt lat="37.020660" lon="-119.793280">
        <ele>147.587</ele>
        <time>2018-12-28T21:00:35Z</time>
      </trkpt>
      <trkpt lat="37.020110" lon="-119.793450">
        <ele>147.335</ele>
        <time>2018-12-28T21:00:55Z</time>
      </trkpt>
      <trkpt lat="37.020110" lon="-119.793450">
        <ele>147.350</ele>
        <time>2018-12-28T21:01:15Z</time>
      </trkpt>
      <trkpt lat="37.019780" lon="-119.793520">
        <ele>147.280</ele>
        <time>2018-12-28T21:01:35Z</time>
      </trkpt>
      <trkpt lat="37.019450" lon="-119.793590">
        <ele>147.214</ele>
        <time>2018-12-28T21:01:55Z</time>
      </trkpt>
      <trkpt lat="37.019420" lon="-119.793600">
        <ele>147.224</ele>
        <time>2018-12-28T21:02:15Z</time>
      </trkpt>
      <trkpt lat="37.019000" lon="-119.793680">
        <ele>147.080</ele>
        <time>2018-12-28T21:02:35Z</time>
      </trkpt>
      <trkpt lat="37.018880" lon="-119.793700">
        <ele>146.979</ele>
        <time>2018-12-28T21:02:55Z</time>
      </trkpt>
      <trkpt lat="37.018240" lon="-119.793790">
        <ele>146.489</ele>
        <time>2018-12-28T21:03:15Z</time>
      </trkpt>
      <trkpt lat="37.017920" lon="-119.793820">
        <ele>146.106</ele>
        <time>2018-12-28T21:03:35Z</time>
      </trkpt>
      <trkpt lat="37.017910" lon="-119.793830">
        <ele>146.126</ele>
        <time>2018-12-28T21:03:55Z</time>
      </trkpt>
      <trkpt lat="37.017690" lon="-119.793850">
        <ele>145.708</ele>
        <time>2018-12-28T21:04:15Z</time>
      </trkpt>
      <trkpt lat="37.017460" lon="-119.793870">
        <ele>145.571</ele>
        <time>2018-12-28T21:04:35Z</time>
      </trkpt>
      <trkpt lat="37.017040" lon="-119.793890">
        <ele>145.199</ele>
        <time>2018-12-28T21:04:55Z</time>
      </trkpt>
      <trkpt lat="37.017010" lon="-119.793890">
        <ele>145.164</ele>
        <time>2018-12-28T21:05:15Z</time>
      </trkpt>
      <trkpt lat="37.015910" lon="-119.793910">
        <ele>144.454</ele>
        <time>2018-12-28T21:05:35Z</time>
      </trkpt>
      <trkpt lat="37.013740" lon="-119.793900">
        <ele>143.278</ele>
        <time>2018-12-28T21:05:55Z</time>
      </trkpt>
      <trkpt lat="37.012930" lon="-119.793910">
        <ele>142.338</ele>
        <time>2018-12-28T21:06:15Z</time>
      </trkpt>
      <trkpt lat="37.012040" lon="-119.793900">
        <ele>141.584</ele>
        <time>2018-12-28T21:06:35Z</time>
      </trkpt>
      <trkpt lat="37.011410" lon="-119.793900">
        <ele>141.173</ele>
        <time>2018-12-28T21:06:55Z</time>
      </trkpt>
      <trkpt lat="37.011220" lon="-119.793890">
        <ele>140.966</ele>
        <time>2018-12-28T21:07:15Z</time>
      </trkpt>
      <trkpt lat="37.010480" lon="-119.793900">
        <ele>140.529</ele>
        <time>2018-12-28T21:07:35Z</time>
      </trkpt>
      <trkpt lat="37.009950" lon="-119.793890">
        <ele>140.121</ele>
        <time>2018-12-28T21:07:55Z</time>
      </trkpt>
      <trkpt lat="37.009680" lon="-119.793900">
        <ele>140.008</ele>
        <time>2018-12-28T21:08:15Z</time>
      </trkpt>
      <trkpt lat="37.008920" lon="-119.793890">
        <ele>139.679</ele>
        <time>2018-12-28T21:08:35Z</time>
      </trkpt>
      <trkpt lat="37.008440" lon="-119.793900">
        <ele>139.417</ele>
        <time>2018-12-28T21:08:55Z</time>
      </trkpt>
      <trkpt lat="37.007850" lon="-119.793910">
        <ele>139.292</ele>
        <time>2018-12-28T21:09:15Z</time>
      </trkpt>
      <trkpt lat="37.007130" lon="-119.793930">
        <ele>138.942</ele>
        <time>2018-12-28T21:09:35Z</time>
      </trkpt>
      <trkpt lat="37.005850" lon="-119.793930">
        <ele>138.256</ele>
        <time>2018-12-28T21:09:55Z</time>
      </trkpt>
      <trkpt lat="37.004320" lon="-119.793930">
        <ele>136.946</ele>
        <time>2018-12-28T21:10:15Z</time>
      </trkpt>
      <trkpt lat="37.002860" lon="-119.793940">
        <ele>135.782</ele>
        <time>2018-12-28T21:10:35Z</time>
      </trkpt>
      <trkpt lat="37.001410" lon="-119.793940">
        <ele>134.281</ele>
        <time>2018-12-28T21:10:55Z</time>
      </trkpt>
      <trkpt lat="37.000930" lon="-119.793940">
        <ele>133.891</ele>
        <time>2018-12-28T21:11:15Z</time>
      </trkpt>
      <trkpt lat="36.997440" lon="-119.793940">
        <ele>130.581</ele>
        <time>2018-12-28T21:11:35Z</time>
      </trkpt>
      <trkpt lat="36.996410" lon="-119.793940">
        <ele>129.519</ele>
        <time>2018-12-28T21:11:55Z</time>
      </trkpt>
      <trkpt lat="36.990220" lon="-119.793950">
        <ele>132.008</ele>
        <time>2018-12-28T21:12:15Z</time>
      </trkpt>
      <trkpt lat="36.986670" lon="-119.793940">
        <ele>133.582</ele>
        <time>2018-12-28T21:12:35Z</time>
      </trkpt>
      <trkpt lat="36.986280" lon="-119.793940">
        <ele>133.610</ele>
        <time>2018-12-28T21:12:55Z</time>
      </trkpt>
      <trkpt lat="36.985630" lon="-119.793940">
        <ele>132.575</ele>
        <time>2018-12-28T21:13:15Z</time>
      </trkpt>
      <trkpt lat="36.983510" lon="-119.793950">
        <ele>135.135</ele>
        <time>2018-12-28T21:13:35Z</time>
      </trkpt>
      <trkpt lat="36.982370" lon="-119.793940">
        <ele>132.839</ele>
        <time>2018-12-28T21:13:55Z</time>
      </trkpt>
      <trkpt lat="36.977490" lon="-119.793940">
        <ele>131.089</ele>
        <time>2018-12-28T21:14:15Z</time>
      </trkpt>
      <trkpt lat="36.977250" lon="-119.793940">
        <ele>130.875</ele>
        <time>2018-12-28T21:14:35Z</time>
      </trkpt>
      <trkpt lat="36.976590" lon="-119.793930">
        <ele>130.464</ele>
        <time>2018-12-28T21:14:55Z</time>
      </trkpt>
      <trkpt lat="36.976130" lon="-119.793940">
        <ele>130.318</ele>
        <time>2018-12-28T21:15:15Z</time>
      </trkpt>
      <trkpt lat="36.972640" lon="-119.793930">
        <ele>127.998</ele>
        <time>2018-12-28T21:15:35Z</time>
      </trkpt>
      <trkpt lat="36.967550" lon="-119.793950">
        <ele>132.917</ele>
        <time>2018-12-28T21:15:55Z</time>
      </trkpt>
      <trkpt lat="36.966920" lon="-119.793960">
        <ele>131.308</ele>
        <time>2018-12-28T21:16:15Z</time>
      </trkpt>
      <trkpt lat="36.965350" lon="-119.793950">
        <ele>128.884</ele>
        <time>2018-12-28T21:16:35Z</time>
      </trkpt>
      <trkpt lat="36.964850" lon="-119.793950">
        <ele>128.492</ele>
        <time>2018-12-28T21:16:55Z</time>
      </trkpt>
      <trkpt lat="36.960650" lon="-119.793950">
        <ele>126.787</ele>
        <time>2018-12-28T21:17:15Z</time>
      </trkpt>
      <trkpt lat="36.959550" lon="-119.793960">
        <ele>127.187</ele>
        <time>2018-12-28T21:17:35Z</time>
      </trkpt>
      <trkpt lat="36.958520" lon="-119.793960">
        <ele>128.151</ele>
        <time>2018-12-28T21:17:55Z</time>
      </trkpt>
      <trkpt lat="36.955740" lon="-119.794000">
        <ele>125.791</ele>
        <time>2018-12-28T21:18:15Z</time>
      </trkpt>
      <trkpt lat="36.955010" lon="-119.794010">
        <ele>125.837</ele>
        <time>2018-12-28T21:18:35Z</time>
      </trkpt>
      <trkpt lat="36.954770" lon="-119.794000">
        <ele>125.936</ele>
        <time>2018-12-28T21:18:55Z</time>
      </trkpt>
      <trkpt lat="36.954510" lon="-119.794000">
        <ele>125.984</ele>
        <time>2018-12-28T21:19:15Z</time>
      </trkpt>
      <trkpt lat="36.954430" lon="-119.794000">
        <ele>125.907</ele>
        <time>2018-12-28T21:19:35Z</time>
      </trkpt>
      <trkpt lat="36.952070" lon="-119.793980">
        <ele>125.717</ele>
        <time>2018-12-28T21:19:55Z</time>
      </trkpt>
      <trkpt lat="36.940150" lon="-119.793950">
        <ele>119.808</ele>
        <time>2018-12-28T21:20:15Z</time>
      </trkpt>
      <trkpt lat="36.937880" lon="-119.793980">
        <ele>120.461</ele>
        <time>2018-12-28T21:20:35Z</time>
      </trkpt>
      <trkpt lat="36.936420" lon="-119.793990">
        <ele>121.189</ele>
        <time>2018-12-28T21:20:55Z</time>
      </trkpt>
      <trkpt lat="36.935580" lon="-119.793980">
        <ele>120.514</ele>
        <time>2018-12-28T21:21:15Z</time>
      </trkpt>
      <trkpt lat="36.934110" lon="-119.793980">
        <ele>118.544</ele>
        <time>2018-12-28T21:21:35Z</time>
      </trkpt>
      <trkpt lat="36.930540" lon="-119.793990">
        <ele>115.548</ele>
        <time>2018-12-28T21:21:55Z</time>
      </trkpt>
      <trkpt lat="36.928240" lon="-119.793990">
        <ele>117.658</ele>
        <time>2018-12-28T21:22:15Z</time>
      </trkpt>
      <trkpt lat="36.927320" lon="-119.793980">
        <ele>118.124</ele>
        <time>2018-12-28T21:22:35Z</time>
      </trkpt>
      <trkpt lat="36.926210" lon="-119.793970">
        <ele>118.083</ele>
        <time>2018-12-28T21:22:55Z</time>
      </trkpt>
      <trkpt lat="36.925360" lon="-119.793980">
        <ele>117.343</ele>
        <time>2018-12-28T21:23:15Z</time>
      </trkpt>
      <trkpt lat="36.925290" lon="-119.794000">
        <ele>117.464</ele>
        <time>2018-12-28T21:23:35Z</time>
      </trkpt>
      <trkpt lat="36.924730" lon="-119.794020">
        <ele>117.510</ele>
        <time>2018-12-28T21:23:55Z</time>
      </trkpt>
      <trkpt lat="36.924650" lon="-119.794030">
        <ele>117.408</ele>
        <time>2018-12-28T21:24:15Z</time>
      </trkpt>
      <trkpt lat="36.924580" lon="-119.794030">
        <ele>117.397</ele>
        <time>2018-12-28T21:24:35Z</time>
      </trkpt>
      <trkpt lat="36.924390" lon="-119.794050">
        <ele>116.995</ele>
        <time>2018-12-28T21:24:55Z</time>
      </trkpt>
      <trkpt lat="36.924030" lon="-119.794060">
        <ele>116.910</ele>
        <time>2018-12-28T21:25:15Z</time>
      </trkpt>
      <trkpt lat="36.923820" lon="-119.794050">
        <ele>117.850</ele>
        <time>2018-12-28T21:25:35Z</time>
      </trkpt>
      <trkpt lat="36.923280" lon="-119.794060">
        <ele>118.184</ele>
        <time>2018-12-28T21:25:55Z</time>
      </trkpt>
      <trkpt lat="36.923200" lon="-119.794060">
        <ele>118.144</ele>
        <time>2018-12-28T21:26:15Z</time>
      </trkpt>
      <trkpt lat="36.922680" lon="-119.794040">
        <ele>118.450</ele>
        <time>2018-12-28T21:26:35Z</time>
      </trkpt>
      <trkpt lat="36.922030" lon="-119.794030">
        <ele>117.259</ele>
        <time>2018-12-28T21:26:55Z</time>
      </trkpt>
      <trkpt lat="36.921430" lon="-119.794020">
        <ele>117.983</ele>
        <time>2018-12-28T21:27:15Z</time>
      </trkpt>
      <trkpt lat="36.920770" lon="-119.793990">
        <ele>115.225</ele>
        <time>2018-12-28T21:27:35Z</time>
      </trkpt>
      <trkpt lat="36.920150" lon="-119.793950">
        <ele>116.217</ele>
        <time>2018-12-28T21:27:55Z</time>
      </trkpt>
      <trkpt lat="36.919430" lon="-119.793910">
        <ele>117.908</ele>
        <time>2018-12-28T21:28:15Z</time>
      </trkpt>
      <trkpt lat="36.918660" lon="-119.793840">
        <ele>117.981</ele>
        <time>2018-12-28T21:28:35Z</time>
      </trkpt>
      <trkpt lat="36.918400" lon="-119.793800">
        <ele>117.499</ele>
        <time>2018-12-28T21:28:55Z</time>
      </trkpt>
      <trkpt lat="36.918230" lon="-119.793760">
        <ele>116.864</ele>
        <time>2018-12-28T21:29:15Z</time>
      </trkpt>
      <trkpt lat="36.917960" lon="-119.793650">
        <ele>116.684</ele>
        <time>2018-12-28T21:29:35Z</time>
      </trkpt>
      <trkpt lat="36.916860" lon="-119.793410">
        <ele>116.728</ele>
        <time>2018-12-28T21:29:55Z</time>
      </trkpt>
      <trkpt lat="36.915180" lon="-119.793010">
        <ele>109.748</ele>
        <time>2018-12-28T21:30:15Z</time>
      </trkpt>
      <trkpt lat="36.914370" lon="-119.792900">
        <ele>113.694</ele>
        <time>2018-12-28T21:30:35Z</time>
      </trkpt>
      <trkpt lat="36.913080" lon="-119.792810">
        <ele>117.753</ele>
        <time>2018-12-28T21:30:55Z</time>
      </trkpt>
      <trkpt lat="36.911240" lon="-119.792740">
        <ele>114.899</ele>
        <time>2018-12-28T21:31:15Z</time>
      </trkpt>
      <trkpt lat="36.910680" lon="-119.792710">
        <ele>115.007</ele>
        <time>2018-12-28T21:31:35Z</time>
      </trkpt>
      <trkpt lat="36.909620" lon="-119.792660">
        <ele>116.127</ele>
        <time>2018-12-28T21:31:55Z</time>
      </trkpt>
      <trkpt lat="36.909520" lon="-119.792650">
        <ele>116.108</ele>
        <time>2018-12-28T21:32:15Z</time>
      </trkpt>
      <trkpt lat="36.909420" lon="-119.792650">
        <ele>116.182</ele>
        <time>2018-12-28T21:32:35Z</time>
      </trkpt>
      <trkpt lat="36.908580" lon="-119.792580">
        <ele>116.010</ele>
        <time>2018-12-28T21:32:55Z</time>
      </trkpt>
      <trkpt lat="36.908350" lon="-119.792620">
        <ele>116.055</ele>
        <time>2018-12-28T21:33:15Z</time>
      </trkpt>
      <trkpt lat="36.908260" lon="-119.792630">
        <ele>115.945</ele>
        <time>2018-12-28T21:33:35Z</time>
      </trkpt>
      <trkpt lat="36.908010" lon="-119.792640">
        <ele>115.899</ele>
        <time>2018-12-28T21:33:55Z</time>
      </trkpt>
      <trkpt lat="36.907830" lon="-119.792640">
        <ele>115.769</ele>
        <time>2018-12-28T21:34:15Z</time>
      </trkpt>
      <trkpt lat="36.907560" lon="-119.792650">
        <ele>115.695</ele>
        <time>2018-12-28T21:34:35Z</time>
      </trkpt>
      <trkpt lat="36.907430" lon="-119.792660">
        <ele>115.564</ele>
        <time>2018-12-28T21:34:55Z</time>
      </trkpt>
      <trkpt lat="36.906610" lon="-119.792750">
        <ele>115.268</ele>
        <time>2018-12-28T21:35:15Z</time>
      </trkpt>
      <trkpt lat="36.906460" lon="-119.792770">
        <ele>115.142</ele>
        <time>2018-12-28T21:35:35Z</time>
      </trkpt>
      <trkpt lat="36.906330" lon="-119.792790">
        <ele>115.126</ele>
        <time>2018-12-28T21:35:55Z</time>
      </trkpt>
      <trkpt lat="36.906180" lon="-119.792800">
        <ele>115.008</ele>
        <time>2018-12-28T21:36:15Z</time>
      </trkpt>
      <trkpt lat="36.905990" lon="-119.792820">
        <ele>115.099</ele>
        <time>2018-12-28T21:36:35Z</time>
      </trkpt>
      <trkpt lat="36.905710" lon="-119.792840">
        <ele>114.927</ele>
        <time>2018-12-28T21:36:55Z</time>
      </trkpt>
      <trkpt lat="36.905500" lon="-119.792840">
        <ele>114.852</ele>
        <time>2018-12-28T21:37:15Z</time>
      </trkpt>
      <trkpt lat="36.905300" lon="-119.792840">
        <ele>114.842</ele>
        <time>2018-12-28T21:37:35Z</time>
      </trkpt>
      <trkpt lat="36.904990" lon="-119.792830">
        <ele>114.766</ele>
        <time>2018-12-28T21:37:55Z</time>
      </trkpt>
      <trkpt lat="36.904680" lon="-119.792810">
        <ele>114.696</ele>
        <time>2018-12-28T21:38:15Z</time>
      </trkpt>
      <trkpt lat="36.903860" lon="-119.792780">
        <ele>114.482</ele>
        <time>2018-12-28T21:38:35Z</time>
      </trkpt>
      <trkpt lat="36.903690" lon="-119.792780">
        <ele>114.421</ele>
        <time>2018-12-28T21:38:55Z</time>
      </trkpt>
      <trkpt lat="36.902760" lon="-119.792770">
        <ele>114.211</ele>
        <time>2018-12-28T21:39:15Z</time>
      </trkpt>
      <trkpt lat="36.901520" lon="-119.792780">
        <ele>114.121</ele>
        <time>2018-12-28T21:39:35Z</time>
      </trkpt>
      <trkpt lat="36.901370" lon="-119.792780">
        <ele>114.103</ele>
        <time>2018-12-28T21:39:55Z</time>
      </trkpt>
      <trkpt lat="36.900750" lon="-119.792800">
        <ele>114.108</ele>
        <time>2018-12-28T21:40:15Z</time>
      </trkpt>
      <trkpt lat="36.899880" lon="-119.792820">
        <ele>114.074</ele>
        <time>2018-12-28T21:40:35Z</time>
      </trkpt>
      <trkpt lat="36.899210" lon="-119.792830">
        <ele>114.082</ele>
        <time>2018-12-28T21:40:55Z</time>
      </trkpt>
      <trkpt lat="36.898070" lon="-119.792850">
        <ele>113.987</ele>
        <time>2018-12-28T21:41:15Z</time>
      </trkpt>
      <trkpt lat="36.897380" lon="-119.792860">
        <ele>113.727</ele>
        <time>2018-12-28T21:41:35Z</time>
      </trkpt>
      <trkpt lat="36.897160" lon="-119.792850">
        <ele>113.751</ele>
        <time>2018-12-28T21:41:55Z</time>
      </trkpt>
      <trkpt lat="36.897050" lon="-119.792860">
        <ele>113.771</ele>
        <time>2018-12-28T21:42:15Z</time>
      </trkpt>
      <trkpt lat="36.896240" lon="-119.792880">
        <ele>113.467</ele>
        <time>2018-12-28T21:42:35Z</time>
      </trkpt>
      <trkpt lat="36.895330" lon="-119.792900">
        <ele>112.166</ele>
        <time>2018-12-28T21:42:55Z</time>
      </trkpt>
      <trkpt lat="36.893490" lon="-119.792930">
        <ele>112.167</ele>
        <time>2018-12-28T21:43:15Z</time>
      </trkpt>
      <trkpt lat="36.893480" lon="-119.792930">
        <ele>112.181</ele>
        <time>2018-12-28T21:43:35Z</time>
      </trkpt>
      <trkpt lat="36.893360" lon="-119.792930">
        <ele>112.019</ele>
        <time>2018-12-28T21:43:55Z</time>
      </trkpt>
      <trkpt lat="36.893350" lon="-119.792930">
        <ele>112.008</ele>
        <time>2018-12-28T21:44:15Z</time>
      </trkpt>
      <trkpt lat="36.893310" lon="-119.792930">
        <ele>112.029</ele>
        <time>2018-12-28T21:44:35Z</time>
      </trkpt>
      <trkpt lat="36.892180" lon="-119.792970">
        <ele>110.987</ele>
        <time>2018-12-28T21:44:55Z</time>
      </trkpt>
      <trkpt lat="36.890890" lon="-119.793010">
        <ele>111.022</ele>
        <time>2018-12-28T21:45:15Z</time>
      </trkpt>
      <trkpt lat="36.889350" lon="-119.793040">
        <ele>111.632</ele>
        <time>2018-12-28T21:45:35Z</time>
      </trkpt>
      <trkpt lat="36.888940" lon="-119.793050">
        <ele>111.456</ele>
        <time>2018-12-28T21:45:55Z</time>
      </trkpt>
      <trkpt lat="36.888540" lon="-119.793050">
        <ele>111.316</ele>
        <time>2018-12-28T21:46:15Z</time>
      </trkpt>
      <trkpt lat="36.885880" lon="-119.793080">
        <ele>85.732</ele>
        <time>2018-12-28T21:46:35Z</time>
      </trkpt>
      <trkpt lat="36.885840" lon="-119.793090">
        <ele>85.671</ele>
        <time>2018-12-28T21:46:55Z</time>
      </trkpt>
      <trkpt lat="36.884990" lon="-119.793100">
        <ele>84.735</ele>
        <time>2018-12-28T21:47:15Z</time>
      </trkpt>
      <trkpt lat="36.884150" lon="-119.793120">
        <ele>85.286</ele>
        <time>2018-12-28T21:47:35Z</time>
      </trkpt>
      <trkpt lat="36.884030" lon="-119.793130">
        <ele>85.214</ele>
        <time>2018-12-28T21:47:55Z</time>
      </trkpt>
      <trkpt lat="36.883770" lon="-119.793130">
        <ele>85.308</ele>
        <time>2018-12-28T21:48:15Z</time>
      </trkpt>
      <trkpt lat="36.883600" lon="-119.793130">
        <ele>84.986</ele>
        <time>2018-12-28T21:48:35Z</time>
      </trkpt>
      <trkpt lat="36.883350" lon="-119.793120">
        <ele>84.644</ele>
        <time>2018-12-28T21:48:55Z</time>
      </trkpt>
      <trkpt lat="36.883080" lon="-119.793120">
        <ele>84.739</ele>
        <time>2018-12-28T21:49:15Z</time>
      </trkpt>
      <trkpt lat="36.882650" lon="-119.793100">
        <ele>84.939</ele>
        <time>2018-12-28T21:49:35Z</time>
      </trkpt>
      <trkpt lat="36.881790" lon="-119.793080">
        <ele>85.283</ele>
        <time>2018-12-28T21:49:55Z</time>
      </trkpt>
      <trkpt lat="36.880930" lon="-119.793040">
        <ele>85.883</ele>
        <time>2018-12-28T21:50:15Z</time>
      </trkpt>
      <trkpt lat="36.880230" lon="-119.793000">
        <ele>85.149</ele>
        <time>2018-12-28T21:50:35Z</time>
      </trkpt>
      <trkpt lat="36.880120" lon="-119.793000">
        <ele>84.938</ele>
        <time>2018-12-28T21:50:55Z</time>
      </trkpt>
      <trkpt lat="36.879210" lon="-119.792960">
        <ele>82.146</ele>
        <time>2018-12-28T21:51:15Z</time>
      </trkpt>
      <trkpt lat="36.878680" lon="-119.792930">
        <ele>81.288</ele>
        <time>2018-12-28T21:51:35Z</time>
      </trkpt>
      <trkpt lat="36.877840" lon="-119.792890">
        <ele>81.316</ele>
        <time>2018-12-28T21:51:55Z</time>
      </trkpt>
      <trkpt lat="36.876950" lon="-119.792850">
        <ele>81.408</ele>
        <time>2018-12-28T21:52:15Z</time>
      </trkpt>
      <trkpt lat="36.876710" lon="-119.792840">
        <ele>81.357</ele>
        <time>2018-12-28T21:52:35Z</time>
      </trkpt>
      <trkpt lat="36.876290" lon="-119.792820">
        <ele>80.245</ele>
        <time>2018-12-28T21:52:55Z</time>
      </trkpt>
      <trkpt lat="36.875520" lon="-119.792780">
        <ele>80.450</ele>
        <time>2018-12-28T21:53:15Z</time>
      </trkpt>
      <trkpt lat="36.874730" lon="-119.792740">
        <ele>82.290</ele>
        <time>2018-12-28T21:53:35Z</time>
      </trkpt>
      <trkpt lat="36.874140" lon="-119.792720">
        <ele>84.024</ele>
        <time>2018-12-28T21:53:55Z</time>
      </trkpt>
      <trkpt lat="36.873910" lon="-119.792710">
        <ele>84.454</ele>
        <time>2018-12-28T21:54:15Z</time>
      </trkpt>
      <trkpt lat="36.873670" lon="-119.792700">
        <ele>84.560</ele>
        <time>2018-12-28T21:54:35Z</time>
      </trkpt>
      <trkpt lat="36.873470" lon="-119.792680">
        <ele>84.579</ele>
        <time>2018-12-28T21:54:55Z</time>
      </trkpt>
      <trkpt lat="36.873240" lon="-119.792660">
        <ele>84.646</ele>
        <time>2018-12-28T21:55:15Z</time>
      </trkpt>
      <trkpt lat="36.873080" lon="-119.792650">
        <ele>84.688</ele>
        <time>2018-12-28T21:55:35Z</time>
      </trkpt>
      <trkpt lat="36.872930" lon="-119.792640">
        <ele>84.616</ele>
        <time>2018-12-28T21:55:55Z</time>
      </trkpt>
      <trkpt lat="36.872820" lon="-119.792630">
        <ele>84.708</ele>
        <time>2018-12-28T21:56:15Z</time>
      </trkpt>
      <trkpt lat="36.872670" lon="-119.792610">
        <ele>84.747</ele>
        <time>2018-12-28T21:56:35Z</time>
      </trkpt>
      <trkpt lat="36.872470" lon="-119.792590">
        <ele>84.935</ele>
        <time>2018-12-28T21:56:55Z</time>
      </trkpt>
      <trkpt lat="36.872290" lon="-119.792570">
        <ele>85.040</ele>
        <time>2018-12-28T21:57:15Z</time>
      </trkpt>
      <trkpt lat="36.871770" lon="-119.792490">
        <ele>85.470</ele>
        <time>2018-12-28T21:57:35Z</time>
      </trkpt>
      <trkpt lat="36.871350" lon="-119.792420">
        <ele>85.234</ele>
        <time>2018-12-28T21:57:55Z</time>
      </trkpt>
      <trkpt lat="36.870980" lon="-119.792360">
        <ele>84.844</ele>
        <time>2018-12-28T21:58:15Z</time>
      </trkpt>
      <trkpt lat="36.870200" lon="-119.792260">
        <ele>94.870</ele>
        <time>2018-12-28T21:58:35Z</time>
      </trkpt>
      <trkpt lat="36.870080" lon="-119.792250">
        <ele>98.649</ele>
        <time>2018-12-28T21:58:55Z</time>
      </trkpt>
      <trkpt lat="36.869850" lon="-119.792220">
        <ele>106.697</ele>
        <time>2018-12-28T21:59:15Z</time>
      </trkpt>
      <trkpt lat="36.869730" lon="-119.792200">
        <ele>106.923</ele>
        <time>2018-12-28T21:59:35Z</time>
      </trkpt>
      <trkpt lat="36.869240" lon="-119.792140">
        <ele>107.325</ele>
        <time>2018-12-28T21:59:55Z</time>
      </trkpt>
      <trkpt lat="36.868810" lon="-119.792090">
        <ele>107.708</ele>
        <time>2018-12-28T22:00:15Z</time>
      </trkpt>
      <trkpt lat="36.868270" lon="-119.792040">
        <ele>106.862</ele>
        <time>2018-12-28T22:00:35Z</time>
      </trkpt>
      <trkpt lat="36.867290" lon="-119.791980">
        <ele>104.450</ele>
        <time>2018-12-28T22:00:55Z</time>
      </trkpt>
      <trkpt lat="36.866750" lon="-119.791950">
        <ele>102.635</ele>
        <time>2018-12-28T22:01:15Z</time>
      </trkpt>
      <trkpt lat="36.864060" lon="-119.791820">
        <ele>102.545</ele>
        <time>2018-12-28T22:01:35Z</time>
      </trkpt>
      <trkpt lat="36.863410" lon="-119.791790">
        <ele>105.549</ele>
        <time>2018-12-28T22:01:55Z</time>
      </trkpt>
      <trkpt lat="36.862140" lon="-119.791740">
        <ele>109.479</ele>
        <time>2018-12-28T22:02:15Z</time>
      </trkpt>
      <trkpt lat="36.861390" lon="-119.791700">
        <ele>109.485</ele>
        <time>2018-12-28T22:02:35Z</time>
      </trkpt>
      <trkpt lat="36.861140" lon="-119.791700">
        <ele>109.434</ele>
        <time>2018-12-28T22:02:55Z</time>
      </trkpt>
      <trkpt lat="36.861030" lon="-119.791690">
        <ele>109.486</ele>
        <time>2018-12-28T22:03:15Z</time>
      </trkpt>
      <trkpt lat="36.860860" lon="-119.791680">
        <ele>109.460</ele>
        <time>2018-12-28T22:03:35Z</time>
      </trkpt>
      <trkpt lat="36.860660" lon="-119.791660">
        <ele>109.426</ele>
        <time>2018-12-28T22:03:55Z</time>
      </trkpt>
      <trkpt lat="36.860480" lon="-119.791640">
        <ele>109.408</ele>
        <time>2018-12-28T22:04:15Z</time>
      </trkpt>
      <trkpt lat="36.860290" lon="-119.791610">
        <ele>109.431</ele>
        <time>2018-12-28T22:04:35Z</time>
      </trkpt>
      <trkpt lat="36.860080" lon="-119.791580">
        <ele>109.429</ele>
        <time>2018-12-28T22:04:55Z</time>
      </trkpt>
      <trkpt lat="36.859860" lon="-119.791550">
        <ele>109.444</ele>
        <time>2018-12-28T22:05:15Z</time>
      </trkpt>
      <trkpt lat="36.859710" lon="-119.791520">
        <ele>109.484</ele>
        <time>2018-12-28T22:05:35Z</time>
      </trkpt>
      <trkpt lat="36.859600" lon="-119.791500">
        <ele>109.448</ele>
        <time>2018-12-28T22:05:55Z</time>
      </trkpt>
      <trkpt lat="36.859410" lon="-119.791460">
        <ele>109.318</ele>
        <time>2018-12-28T22:06:15Z</time>
      </trkpt>
      <trkpt lat="36.859230" lon="-119.791410">
        <ele>109.324</ele>
        <time>2018-12-28T22:06:35Z</time>
      </trkpt>
      <trkpt lat="36.859060" lon="-119.791370">
        <ele>109.353</ele>
        <time>2018-12-28T22:06:55Z</time>
      </trkpt>
      <trkpt lat="36.858890" lon="-119.791330">
        <ele>109.251</ele>
        <time>2018-12-28T22:07:15Z</time>
      </trkpt>
      <trkpt lat="36.858650" lon="-119.791260">
        <ele>109.101</ele>
        <time>2018-12-28T22:07:35Z</time>
      </trkpt>
      <trkpt lat="36.858340" lon="-119.791170">
        <ele>109.111</ele>
        <time>2018-12-28T22:07:55Z</time>
      </trkpt>
      <trkpt lat="36.858130" lon="-119.791100">
        <ele>109.208</ele>
        <time>2018-12-28T22:08:15Z</time>
      </trkpt>
      <trkpt lat="36.857780" lon="-119.790970">
        <ele>109.328</ele>
        <time>2018-12-28T22:08:35Z</time>
      </trkpt>
      <trkpt lat="36.857570" lon="-119.790890">
        <ele>109.326</ele>
        <time>2018-12-28T22:08:55Z</time>
      </trkpt>
      <trkpt lat="36.857390" lon="-119.790810">
        <ele>109.371</ele>
        <time>2018-12-28T22:09:15Z</time>
      </trkpt>
      <trkpt lat="36.857220" lon="-119.790750">
        <ele>109.371</ele>
        <time>2018-12-28T22:09:35Z</time>
      </trkpt>
      <trkpt lat="36.857000" lon="-119.790650">
        <ele>109.315</ele>
        <time>2018-12-28T22:09:55Z</time>
      </trkpt>
      <trkpt lat="36.856760" lon="-119.790530">
        <ele>109.365</ele>
        <time>2018-12-28T22:10:15Z</time>
      </trkpt>
      <trkpt lat="36.856650" lon="-119.790480">
        <ele>109.391</ele>
        <time>2018-12-28T22:10:35Z</time>
      </trkpt>
      <trkpt lat="36.856510" lon="-119.790400">
        <ele>109.380</ele>
        <time>2018-12-28T22:10:55Z</time>
      </trkpt>
      <trkpt lat="36.856420" lon="-119.790360">
        <ele>109.374</ele>
        <time>2018-12-28T22:11:15Z</time>
      </trkpt>
      <trkpt lat="36.856310" lon="-119.790300">
        <ele>109.256</ele>
        <time>2018-12-28T22:11:35Z</time>
      </trkpt>
      <trkpt lat="36.856180" lon="-119.790230">
        <ele>109.221</ele>
        <time>2018-12-28T22:11:55Z</time>
      </trkpt>
      <trkpt lat="36.856060" lon="-119.790160">
        <ele>109.208</ele>
        <time>2018-12-28T22:12:15Z</time>
      </trkpt>
      <trkpt lat="36.855940" lon="-119.790090">
        <ele>109.130</ele>
        <time>2018-12-28T22:12:35Z</time>
      </trkpt>
      <trkpt lat="36.855780" lon="-119.790000">
        <ele>109.128</ele>
        <time>2018-12-28T22:12:55Z</time>
      </trkpt>
      <trkpt lat="36.855670" lon="-119.789940">
        <ele>109.043</ele>
        <time>2018-12-28T22:13:15Z</time>
      </trkpt>
      <trkpt lat="36.855500" lon="-119.789830">
        <ele>109.033</ele>
        <time>2018-12-28T22:13:35Z</time>
      </trkpt>
      <trkpt lat="36.855310" lon="-119.789700">
        <ele>109.017</ele>
        <time>2018-12-28T22:13:55Z</time>
      </trkpt>
      <trkpt lat="36.855130" lon="-119.789580">
        <ele>109.087</ele>
        <time>2018-12-28T22:14:15Z</time>
      </trkpt>
      <trkpt lat="36.854960" lon="-119.789460">
        <ele>109.073</ele>
        <time>2018-12-28T22:14:35Z</time>
      </trkpt>
      <trkpt lat="36.854800" lon="-119.789350">
        <ele>109.072</ele>
        <time>2018-12-28T22:14:55Z</time>
      </trkpt>
      <trkpt lat="36.854700" lon="-119.789280">
        <ele>109.095</ele>
        <time>2018-12-28T22:15:15Z</time>
      </trkpt>
      <trkpt lat="36.854610" lon="-119.789210">
        <ele>109.049</ele>
        <time>2018-12-28T22:15:35Z</time>
      </trkpt>
      <trkpt lat="36.854400" lon="-119.789070">
        <ele>109.023</ele>
        <time>2018-12-28T22:15:55Z</time>
      </trkpt>
      <trkpt lat="36.854200" lon="-119.788930">
        <ele>109.008</ele>
        <time>2018-12-28T22:16:15Z</time>
      </trkpt>
      <trkpt lat="36.854010" lon="-119.788790">
        <ele>109.032</ele>
        <time>2018-12-28T22:16:35Z</time>
      </trkpt>
      <trkpt lat="36.853620" lon="-119.788510">
        <ele>109.070</ele>
        <time>2018-12-28T22:16:55Z</time>
      </trkpt>
      <trkpt lat="36.853100" lon="-119.788130">
        <ele>108.935</ele>
        <time>2018-12-28T22:17:15Z</time>
      </trkpt>
      <trkpt lat="36.852770" lon="-119.787900">
        <ele>108.615</ele>
        <time>2018-12-28T22:17:35Z</time>
      </trkpt>
      <trkpt lat="36.852720" lon="-119.787850">
        <ele>108.659</ele>
        <time>2018-12-28T22:17:55Z</time>
      </trkpt>
      <trkpt lat="36.852680" lon="-119.787830">
        <ele>108.539</ele>
        <time>2018-12-28T22:18:15Z</time>
      </trkpt>
      <trkpt lat="36.852390" lon="-119.787610">
        <ele>108.355</ele>
        <time>2018-12-28T22:18:35Z</time>
      </trkpt>
      <trkpt lat="36.852130" lon="-119.787430">
        <ele>108.034</ele>
        <time>2018-12-28T22:18:55Z</time>
      </trkpt>
      <trkpt lat="36.852080" lon="-119.787410">
        <ele>108.025</ele>
        <time>2018-12-28T22:19:15Z</time>
      </trkpt>
      <trkpt lat="36.852020" lon="-119.787380">
        <ele>107.926</ele>
        <time>2018-12-28T22:19:35Z</time>
      </trkpt>
      <trkpt lat="36.851900" lon="-119.787290">
        <ele>107.808</ele>
        <time>2018-12-28T22:19:55Z</time>
      </trkpt>
      <trkpt lat="36.851810" lon="-119.787230">
        <ele>107.708</ele>
        <time>2018-12-28T22:20:15Z</time>
      </trkpt>
      <trkpt lat="36.851780" lon="-119.787210">
        <ele>107.745</ele>
        <time>2018-12-28T22:20:35Z</time>
      </trkpt>
      <trkpt lat="36.851650" lon="-119.787120">
        <ele>107.693</ele>
        <time>2018-12-28T22:20:55Z</time>
      </trkpt>
      <trkpt lat="36.851350" lon="-119.786930">
        <ele>107.478</ele>
        <time>2018-12-28T22:21:15Z</time>
      </trkpt>
      <trkpt lat="36.851200" lon="-119.786830">
        <ele>107.418</ele>
        <time>2018-12-28T22:21:35Z</time>
      </trkpt>
      <trkpt lat="36.850810" lon="-119.786610">
        <ele>107.472</ele>
        <time>2018-12-28T22:21:55Z</time>
      </trkpt>
      <trkpt lat="36.850650" lon="-119.786520">
        <ele>107.442</ele>
        <time>2018-12-28T22:22:15Z</time>
      </trkpt>
      <trkpt lat="36.850470" lon="-119.786420">
        <ele>107.418</ele>
        <time>2018-12-28T22:22:35Z</time>
      </trkpt>
      <trkpt lat="36.850390" lon="-119.786380">
        <ele>107.457</ele>
        <time>2018-12-28T22:22:55Z</time>
      </trkpt>
      <trkpt lat="36.850330" lon="-119.786350">
        <ele>107.415</ele>
        <time>2018-12-28T22:23:15Z</time>
      </trkpt>
      <trkpt lat="36.850260" lon="-119.786310">
        <ele>107.465</ele>
        <time>2018-12-28T22:23:35Z</time>
      </trkpt>
      <trkpt lat="36.850080" lon="-119.786230">
        <ele>107.411</ele>
        <time>2018-12-28T22:23:55Z</time>
      </trkpt>
      <trkpt lat="36.849980" lon="-119.786190">
        <ele>107.408</ele>
        <time>2018-12-28T22:24:15Z</time>
      </trkpt>
      <trkpt lat="36.849920" lon="-119.786160">
        <ele>107.474</ele>
        <time>2018-12-28T22:24:35Z</time>
      </trkpt>
      <trkpt lat="36.849850" lon="-119.786130">
        <ele>107.452</ele>
        <time>2018-12-28T22:24:55Z</time>
      </trkpt>
      <trkpt lat="36.849460" lon="-119.785960">
        <ele>107.457</ele>
        <time>2018-12-28T22:25:15Z</time>
      </trkpt>
      <trkpt lat="36.849050" lon="-119.785810">
        <ele>107.467</ele>
        <time>2018-12-28T22:25:35Z</time>
      </trkpt>
      <trkpt lat="36.848600" lon="-119.785650">
        <ele>107.351</ele>
        <time>2018-12-28T22:25:55Z</time>
      </trkpt>
      <trkpt lat="36.848530" lon="-119.785630">
        <ele>107.361</ele>
        <time>2018-12-28T22:26:15Z</time>
      </trkpt>
      <trkpt lat="36.848510" lon="-119.785620">
        <ele>107.357</ele>
        <time>2018-12-28T22:26:35Z</time>
      </trkpt>
      <trkpt lat="36.848440" lon="-119.785600">
        <ele>107.326</ele>
        <time>2018-12-28T22:26:55Z</time>
      </trkpt>
      <trkpt lat="36.848380" lon="-119.785580">
        <ele>107.381</ele>
        <time>2018-12-28T22:27:15Z</time>
      </trkpt>
      <trkpt lat="36.848310" lon="-119.785560">
        <ele>107.361</ele>
        <time>2018-12-28T22:27:35Z</time>
      </trkpt>
      <trkpt lat="36.848260" lon="-119.785540">
        <ele>107.317</ele>
        <time>2018-12-28T22:27:55Z</time>
      </trkpt>
      <trkpt lat="36.848030" lon="-119.785480">
        <ele>107.308</ele>
        <time>2018-12-28T22:28:15Z</time>
      </trkpt>
      <trkpt lat="36.847700" lon="-119.785400">
        <ele>107.321</ele>
        <time>2018-12-28T22:28:35Z</time>
      </trkpt>
      <trkpt lat="36.847250" lon="-119.785320">
        <ele>107.469</ele>
        <time>2018-12-28T22:28:55Z</time>
      </trkpt>
      <trkpt lat="36.847200" lon="-119.785310">
        <ele>107.444</ele>
        <time>2018-12-28T22:29:15Z</time>
      </trkpt>
      <trkpt lat="36.846830" lon="-119.785250">
        <ele>107.594</ele>
        <time>2018-12-28T22:29:35Z</time>
      </trkpt>
      <trkpt lat="36.846570" lon="-119.785210">
        <ele>107.578</ele>
        <time>2018-12-28T22:29:55Z</time>
      </trkpt>
      <trkpt lat="36.846180" lon="-119.785180">
        <ele>107.598</ele>
        <time>2018-12-28T22:30:15Z</time>
      </trkpt>
      <trkpt lat="36.845650" lon="-119.785150">
        <ele>107.334</ele>
        <time>2018-12-28T22:30:35Z</time>
      </trkpt>
      <trkpt lat="36.844680" lon="-119.785140">
        <ele>107.043</ele>
        <time>2018-12-28T22:30:55Z</time>
      </trkpt>
      <trkpt lat="36.844230" lon="-119.785140">
        <ele>106.752</ele>
        <time>2018-12-28T22:31:15Z</time>
      </trkpt>
      <trkpt lat="36.841340" lon="-119.785150">
        <ele>105.653</ele>
        <time>2018-12-28T22:31:35Z</time>
      </trkpt>
      <trkpt lat="36.840920" lon="-119.785160">
        <ele>105.408</ele>
        <time>2018-12-28T22:31:55Z</time>
      </trkpt>
      <trkpt lat="36.837840" lon="-119.785190">
        <ele>104.308</ele>
        <time>2018-12-28T22:32:15Z</time>
      </trkpt>
      <trkpt lat="36.837510" lon="-119.785190">
        <ele>104.288</ele>
        <time>2018-12-28T22:32:35Z</time>
      </trkpt>
      <trkpt lat="36.837460" lon="-119.785190">
        <ele>104.296</ele>
        <time>2018-12-28T22:32:55Z</time>
      </trkpt>
      <trkpt lat="36.837370" lon="-119.785190">
        <ele>104.111</ele>
        <time>2018-12-28T22:33:15Z</time>
      </trkpt>
      <trkpt lat="36.836450" lon="-119.785180">
        <ele>103.861</ele>
        <time>2018-12-28T22:33:35Z</time>
      </trkpt>
      <trkpt lat="36.834460" lon="-119.785200">
        <ele>102.845</ele>
        <time>2018-12-28T22:33:55Z</time>
      </trkpt>
      <trkpt lat="36.833950" lon="-119.785190">
        <ele>102.745</ele>
        <time>2018-12-28T22:34:15Z</time>
      </trkpt>
      <trkpt lat="36.833520" lon="-119.785190">
        <ele>102.711</ele>
        <time>2018-12-28T22:34:35Z</time>
      </trkpt>
      <trkpt lat="36.832140" lon="-119.785200">
        <ele>102.660</ele>
        <time>2018-12-28T22:34:55Z</time>
      </trkpt>
      <trkpt lat="36.831490" lon="-119.785200">
        <ele>102.571</ele>
        <time>2018-12-28T22:35:15Z</time>
      </trkpt>
      <trkpt lat="36.830370" lon="-119.785220">
        <ele>102.541</ele>
        <time>2018-12-28T22:35:35Z</time>
      </trkpt>
      <trkpt lat="36.830160" lon="-119.785220">
        <ele>102.515</ele>
        <time>2018-12-28T22:35:55Z</time>
      </trkpt>
      <trkpt lat="36.828820" lon="-119.785230">
        <ele>102.408</ele>
        <time>2018-12-28T22:36:15Z</time>
      </trkpt>
      <trkpt lat="36.826230" lon="-119.785260">
        <ele>101.510</ele>
        <time>2018-12-28T22:36:35Z</time>
      </trkpt>
      <trkpt lat="36.825740" lon="-119.785270">
        <ele>101.588</ele>
        <time>2018-12-28T22:36:55Z</time>
      </trkpt>
      <trkpt lat="36.823040" lon="-119.785400">
        <ele>102.023</ele>
        <time>2018-12-28T22:37:15Z</time>
      </trkpt>
      <trkpt lat="36.822900" lon="-119.785400">
        <ele>101.993</ele>
        <time>2018-12-28T22:37:35Z</time>
      </trkpt>
      <trkpt lat="36.822820" lon="-119.785410">
        <ele>101.997</ele>
        <time>2018-12-28T22:37:55Z</time>
      </trkpt>
      <trkpt lat="36.821480" lon="-119.785460">
        <ele>101.687</ele>
        <time>2018-12-28T22:38:15Z</time>
      </trkpt>
      <trkpt lat="36.820650" lon="-119.785510">
        <ele>101.573</ele>
        <time>2018-12-28T22:38:35Z</time>
      </trkpt>
      <trkpt lat="36.820050" lon="-119.785540">
        <ele>101.332</ele>
        <time>2018-12-28T22:38:55Z</time>
      </trkpt>
      <trkpt lat="36.819610" lon="-119.785550">
        <ele>101.342</ele>
        <time>2018-12-28T22:39:15Z</time>
      </trkpt>
      <trkpt lat="36.818770" lon="-119.785560">
        <ele>101.022</ele>
        <time>2018-12-28T22:39:35Z</time>
      </trkpt>
      <trkpt lat="36.816410" lon="-119.785540">
        <ele>100.114</ele>
        <time>2018-12-28T22:39:55Z</time>
      </trkpt>
      <trkpt lat="36.815740" lon="-119.785530">
        <ele>100.308</ele>
        <time>2018-12-28T22:40:15Z</time>
      </trkpt>
      <trkpt lat="36.815510" lon="-119.785520">
        <ele>100.287</ele>
        <time>2018-12-28T22:40:35Z</time>
      </trkpt>
      <trkpt lat="36.814400" lon="-119.785510">
        <ele>99.765</ele>
        <time>2018-12-28T22:40:55Z</time>
      </trkpt>
      <trkpt lat="36.812980" lon="-119.785480">
        <ele>99.290</ele>
        <time>2018-12-28T22:41:15Z</time>
      </trkpt>
      <trkpt lat="36.812770" lon="-119.785480">
        <ele>99.130</ele>
        <time>2018-12-28T22:41:35Z</time>
      </trkpt>
      <trkpt lat="36.812620" lon="-119.785480">
        <ele>99.094</ele>
        <time>2018-12-28T22:41:55Z</time>
      </trkpt>
      <trkpt lat="36.812220" lon="-119.785480">
        <ele>98.874</ele>
        <time>2018-12-28T22:42:15Z</time>
      </trkpt>
      <trkpt lat="36.810820" lon="-119.785460">
        <ele>98.410</ele>
        <time>2018-12-28T22:42:35Z</time>
      </trkpt>
      <trkpt lat="36.808940" lon="-119.785450">
        <ele>98.599</ele>
        <time>2018-12-28T22:42:55Z</time>
      </trkpt>
      <trkpt lat="36.808710" lon="-119.785450">
        <ele>98.444</ele>
        <time>2018-12-28T22:43:15Z</time>
      </trkpt>
      <trkpt lat="36.808630" lon="-119.785440">
        <ele>98.505</ele>
        <time>2018-12-28T22:43:35Z</time>
      </trkpt>
      <trkpt lat="36.808620" lon="-119.785440">
        <ele>98.515</ele>
        <time>2018-12-28T22:43:55Z</time>
      </trkpt>
      <trkpt lat="36.808500" lon="-119.785440">
        <ele>98.408</ele>
        <time>2018-12-28T22:44:15Z</time>
      </trkpt>
      <trkpt lat="36.808470" lon="-119.785440">
        <ele>98.437</ele>
        <time>2018-12-28T22:44:35Z</time>
      </trkpt>
      <trkpt lat="36.808460" lon="-119.785440">
        <ele>98.415</ele>
        <time>2018-12-28T22:44:55Z</time>
      </trkpt>
      <trkpt lat="36.808150" lon="-119.785440">
        <ele>98.420</ele>
        <time>2018-12-28T22:45:15Z</time>
      </trkpt>
      <trkpt lat="36.806980" lon="-119.785420">
        <ele>98.280</ele>
        <time>2018-12-28T22:45:35Z</time>
      </trkpt>
      <trkpt lat="36.806010" lon="-119.785430">
        <ele>97.914</ele>
        <time>2018-12-28T22:45:55Z</time>
      </trkpt>
      <trkpt lat="36.805750" lon="-119.785440">
        <ele>97.874</ele>
        <time>2018-12-28T22:46:15Z</time>
      </trkpt>
      <trkpt lat="36.805030" lon="-119.785440">
        <ele>97.690</ele>
        <time>2018-12-28T22:46:35Z</time>
      </trkpt>
      <trkpt lat="36.803890" lon="-119.785440">
        <ele>97.549</ele>
        <time>2018-12-28T22:46:55Z</time>
      </trkpt>
      <trkpt lat="36.802450" lon="-119.785460">
        <ele>97.472</ele>
        <time>2018-12-28T22:47:15Z</time>
      </trkpt>
      <trkpt lat="36.801610" lon="-119.785470">
        <ele>97.313</ele>
        <time>2018-12-28T22:47:35Z</time>
      </trkpt>
      <trkpt lat="36.801320" lon="-119.785470">
        <ele>97.314</ele>
        <time>2018-12-28T22:47:55Z</time>
      </trkpt>
      <trkpt lat="36.800640" lon="-119.785480">
        <ele>97.208</ele>
        <time>2018-12-28T22:48:15Z</time>
      </trkpt>
      <trkpt lat="36.798910" lon="-119.785500">
        <ele>96.990</ele>
        <time>2018-12-28T22:48:35Z</time>
      </trkpt>
      <trkpt lat="36.798260" lon="-119.785480">
        <ele>96.818</ele>
        <time>2018-12-28T22:48:55Z</time>
      </trkpt>
      <trkpt lat="36.797890" lon="-119.785470">
        <ele>96.833</ele>
        <time>2018-12-28T22:49:15Z</time>
      </trkpt>
      <trkpt lat="36.797470" lon="-119.785450">
        <ele>96.893</ele>
        <time>2018-12-28T22:49:35Z</time>
      </trkpt>
      <trkpt lat="36.796600" lon="-119.785400">
        <ele>96.757</ele>
        <time>2018-12-28T22:49:55Z</time>
      </trkpt>
      <trkpt lat="36.796140" lon="-119.785360">
        <ele>96.777</ele>
        <time>2018-12-28T22:50:15Z</time>
      </trkpt>
      <trkpt lat="36.795780" lon="-119.785320">
        <ele>96.763</ele>
        <time>2018-12-28T22:50:35Z</time>
      </trkpt>
      <trkpt lat="36.795500" lon="-119.785270">
        <ele>96.732</ele>
        <time>2018-12-28T22:50:55Z</time>
      </trkpt>
      <trkpt lat="36.794160" lon="-119.785070">
        <ele>96.775</ele>
        <time>2018-12-28T22:51:15Z</time>
      </trkpt>
      <trkpt lat="36.794150" lon="-119.785070">
        <ele>96.728</ele>
        <time>2018-12-28T22:51:35Z</time>
      </trkpt>
      <trkpt lat="36.794040" lon="-119.785050">
        <ele>96.720</ele>
        <time>2018-12-28T22:51:55Z</time>
      </trkpt>
      <trkpt lat="36.792340" lon="-119.784810">
        <ele>96.708</ele>
        <time>2018-12-28T22:52:15Z</time>
      </trkpt>
      <trkpt lat="36.791680" lon="-119.784700">
        <ele>96.830</ele>
        <time>2018-12-28T22:52:35Z</time>
      </trkpt>
      <trkpt lat="36.790690" lon="-119.784590">
        <ele>96.878</ele>
        <time>2018-12-28T22:52:55Z</time>
      </trkpt>
      <trkpt lat="36.790070" lon="-119.784530">
        <ele>96.793</ele>
        <time>2018-12-28T22:53:15Z</time>
      </trkpt>
      <trkpt lat="36.789410" lon="-119.784490">
        <ele>96.573</ele>
        <time>2018-12-28T22:53:35Z</time>
      </trkpt>
      <trkpt lat="36.788840" lon="-119.784470">
        <ele>96.447</ele>
        <time>2018-12-28T22:53:55Z</time>
      </trkpt>
      <trkpt lat="36.788540" lon="-119.784460">
        <ele>96.247</ele>
        <time>2018-12-28T22:54:15Z</time>
      </trkpt>
      <trkpt lat="36.788240" lon="-119.784470">
        <ele>96.163</ele>
        <time>2018-12-28T22:54:35Z</time>
      </trkpt>
      <trkpt lat="36.787910" lon="-119.784470">
        <ele>96.052</ele>
        <time>2018-12-28T22:54:55Z</time>
      </trkpt>
      <trkpt lat="36.787580" lon="-119.784490">
        <ele>95.866</ele>
        <time>2018-12-28T22:55:15Z</time>
      </trkpt>
      <trkpt lat="36.787210" lon="-119.784500">
        <ele>95.729</ele>
        <time>2018-12-28T22:55:35Z</time>
      </trkpt>
      <trkpt lat="36.786830" lon="-119.784520">
        <ele>95.521</ele>
        <time>2018-12-28T22:55:55Z</time>
      </trkpt>
      <trkpt lat="36.786750" lon="-119.784530">
        <ele>95.508</ele>
        <time>2018-12-28T22:56:15Z</time>
      </trkpt>
      <trkpt lat="36.783730" lon="-119.784680">
        <ele>95.369</ele>
        <time>2018-12-28T22:56:35Z</time>
      </trkpt>
      <trkpt lat="36.783560" lon="-119.784690">
        <ele>95.337</ele>
        <time>2018-12-28T22:56:55Z</time>
      </trkpt>
      <trkpt lat="36.782240" lon="-119.784770">
        <ele>95.392</ele>
        <time>2018-12-28T22:57:15Z</time>
      </trkpt>
      <trkpt lat="36.780060" lon="-119.784920">
        <ele>95.372</ele>
        <time>2018-12-28T22:57:35Z</time>
      </trkpt>
      <trkpt lat="36.779860" lon="-119.784930">
        <ele>95.276</ele>
        <time>2018-12-28T22:57:55Z</time>
      </trkpt>
      <trkpt lat="36.779780" lon="-119.784930">
        <ele>95.256</ele>
        <time>2018-12-28T22:58:15Z</time>
      </trkpt>
      <trkpt lat="36.779700" lon="-119.784940">
        <ele>95.242</ele>
        <time>2018-12-28T22:58:35Z</time>
      </trkpt>
      <trkpt lat="36.779590" lon="-119.784950">
        <ele>95.261</ele>
        <time>2018-12-28T22:58:55Z</time>
      </trkpt>
      <trkpt lat="36.779480" lon="-119.784950">
        <ele>95.385</ele>
        <time>2018-12-28T22:59:15Z</time>
      </trkpt>
      <trkpt lat="36.778880" lon="-119.784990">
        <ele>95.289</ele>
        <time>2018-12-28T22:59:35Z</time>
      </trkpt>
      <trkpt lat="36.776880" lon="-119.785110">
        <ele>94.717</ele>
        <time>2018-12-28T22:59:55Z</time>
      </trkpt>
      <trkpt lat="36.776650" lon="-119.785110">
        <ele>94.608</ele>
        <time>2018-12-28T23:00:15Z</time>
      </trkpt>
      <trkpt lat="36.776100" lon="-119.785160">
        <ele>94.431</ele>
        <time>2018-12-28T23:00:35Z</time>
      </trkpt>
      <trkpt lat="36.775910" lon="-119.785170">
        <ele>94.339</ele>
        <time>2018-12-28T23:00:55Z</time>
      </trkpt>
      <trkpt lat="36.775900" lon="-119.785170">
        <ele>94.374</ele>
        <time>2018-12-28T23:01:15Z</time>
      </trkpt>
      <trkpt lat="36.775700" lon="-119.785180">
        <ele>94.264</ele>
        <time>2018-12-28T23:01:35Z</time>
      </trkpt>
      <trkpt lat="36.774910" lon="-119.785220">
        <ele>93.978</ele>
        <time>2018-12-28T23:01:55Z</time>
      </trkpt>
      <trkpt lat="36.774440" lon="-119.785240">
        <ele>93.878</ele>
        <time>2018-12-28T23:02:15Z</time>
      </trkpt>
      <trkpt lat="36.773970" lon="-119.785240">
        <ele>93.674</ele>
        <time>2018-12-28T23:02:35Z</time>
      </trkpt>
      <trkpt lat="36.773730" lon="-119.785230">
        <ele>93.623</ele>
        <time>2018-12-28T23:02:55Z</time>
      </trkpt>
      <trkpt lat="36.773410" lon="-119.785200">
        <ele>93.558</ele>
        <time>2018-12-28T23:03:15Z</time>
      </trkpt>
      <trkpt lat="36.773050" lon="-119.785140">
        <ele>93.452</ele>
        <time>2018-12-28T23:03:35Z</time>
      </trkpt>
      <trkpt lat="36.772480" lon="-119.785010">
        <ele>93.417</ele>
        <time>2018-12-28T23:03:55Z</time>
      </trkpt>
      <trkpt lat="36.772280" lon="-119.784950">
        <ele>93.408</ele>
        <time>2018-12-28T23:04:15Z</time>
      </trkpt>
      <trkpt lat="36.772270" lon="-119.784940">
        <ele>93.488</ele>
        <time>2018-12-28T23:04:35Z</time>
      </trkpt>
      <trkpt lat="36.772050" lon="-119.784880">
        <ele>93.346</ele>
        <time>2018-12-28T23:04:55Z</time>
      </trkpt>
      <trkpt lat="36.771860" lon="-119.784820">
        <ele>93.361</ele>
        <time>2018-12-28T23:05:15Z</time>
      </trkpt>
      <trkpt lat="36.771500" lon="-119.784670">
        <ele>93.331</ele>
        <time>2018-12-28T23:05:35Z</time>
      </trkpt>
      <trkpt lat="36.770910" lon="-119.784390">
        <ele>93.285</ele>
        <time>2018-12-28T23:05:55Z</time>
      </trkpt>
      <trkpt lat="36.770360" lon="-119.784060">
        <ele>93.125</ele>
        <time>2018-12-28T23:06:15Z</time>
      </trkpt>
      <trkpt lat="36.769930" lon="-119.783750">
        <ele>93.011</ele>
        <time>2018-12-28T23:06:35Z</time>
      </trkpt>
      <trkpt lat="36.769590" lon="-119.783490">
        <ele>92.920</ele>
        <time>2018-12-28T23:06:55Z</time>
      </trkpt>
      <trkpt lat="36.769050" lon="-119.782990">
        <ele>92.872</ele>
        <time>2018-12-28T23:07:15Z</time>
      </trkpt>
      <trkpt lat="36.768600" lon="-119.782510">
        <ele>92.813</ele>
        <time>2018-12-28T23:07:35Z</time>
      </trkpt>
      <trkpt lat="36.768150" lon="-119.781930">
        <ele>92.714</ele>
        <time>2018-12-28T23:07:55Z</time>
      </trkpt>
      <trkpt lat="36.767890" lon="-119.781550">
        <ele>92.708</ele>
        <time>2018-12-28T23:08:15Z</time>
      </trkpt>
      <trkpt lat="36.767890" lon="-119.781540">
        <ele>92.720</ele>
        <time>2018-12-28T23:08:35Z</time>
      </trkpt>
      <trkpt lat="36.767780" lon="-119.781390">
        <ele>92.778</ele>
        <time>2018-12-28T23:08:55Z</time>
      </trkpt>
      <trkpt lat="36.767770" lon="-119.781380">
        <ele>92.753</ele>
        <time>2018-12-28T23:09:15Z</time>
      </trkpt>
      <trkpt lat="36.767740" lon="-119.781330">
        <ele>92.723</ele>
        <time>2018-12-28T23:09:35Z</time>
      </trkpt>
      <trkpt lat="36.767670" lon="-119.781230">
        <ele>92.727</ele>
        <time>2018-12-28T23:09:55Z</time>
      </trkpt>
      <trkpt lat="36.767610" lon="-119.781130">
        <ele>92.717</ele>
        <time>2018-12-28T23:10:15Z</time>
      </trkpt>
      <trkpt lat="36.767500" lon="-119.780940">
        <ele>92.743</ele>
        <time>2018-12-28T23:10:35Z</time>
      </trkpt>
      <trkpt lat="36.767210" lon="-119.780410">
        <ele>92.762</ele>
        <time>2018-12-28T23:10:55Z</time>
      </trkpt>
      <trkpt lat="36.766910" lon="-119.779860">
        <ele>92.611</ele>
        <time>2018-12-28T23:11:15Z</time>
      </trkpt>
      <trkpt lat="36.766470" lon="-119.779030">
        <ele>92.721</ele>
        <time>2018-12-28T23:11:35Z</time>
      </trkpt>
      <trkpt lat="36.766320" lon="-119.778770">
        <ele>92.703</ele>
        <time>2018-12-28T23:11:55Z</time>
      </trkpt>
      <trkpt lat="36.766110" lon="-119.778410">
        <ele>92.708</ele>
        <time>2018-12-28T23:12:15Z</time>
      </trkpt>
      <trkpt lat="36.765780" lon="-119.777940">
        <ele>92.754</ele>
        <time>2018-12-28T23:12:35Z</time>
      </trkpt>
      <trkpt lat="36.765560" lon="-119.777670">
        <ele>92.732</ele>
        <time>2018-12-28T23:12:55Z</time>
      </trkpt>
      <trkpt lat="36.765270" lon="-119.777350">
        <ele>92.727</ele>
        <time>2018-12-28T23:13:15Z</time>
      </trkpt>
      <trkpt lat="36.765140" lon="-119.777210">
        <ele>92.797</ele>
        <time>2018-12-28T23:13:35Z</time>
      </trkpt>
      <trkpt lat="36.765090" lon="-119.777170">
        <ele>92.711</ele>
        <time>2018-12-28T23:13:55Z</time>
      </trkpt>
      <trkpt lat="36.765090" lon="-119.777160">
        <ele>92.761</ele>
        <time>2018-12-28T23:14:15Z</time>
      </trkpt>
      <trkpt lat="36.765030" lon="-119.777110">
        <ele>92.727</ele>
        <time>2018-12-28T23:14:35Z</time>
      </trkpt>
      <trkpt lat="36.764970" lon="-119.777050">
        <ele>92.756</ele>
        <time>2018-12-28T23:14:55Z</time>
      </trkpt>
      <trkpt lat="36.764960" lon="-119.777050">
        <ele>92.713</ele>
        <time>2018-12-28T23:15:15Z</time>
      </trkpt>
      <trkpt lat="36.764790" lon="-119.776890">
        <ele>92.743</ele>
        <time>2018-12-28T23:15:35Z</time>
      </trkpt>
      <trkpt lat="36.764550" lon="-119.776700">
        <ele>92.707</ele>
        <time>2018-12-28T23:15:55Z</time>
      </trkpt>
      <trkpt lat="36.764260" lon="-119.776490">
        <ele>92.608</ele>
        <time>2018-12-28T23:16:15Z</time>
      </trkpt>
      <trkpt lat="36.763980" lon="-119.776300">
        <ele>92.694</ele>
        <time>2018-12-28T23:16:35Z</time>
      </trkpt>
      <trkpt lat="36.763710" lon="-119.776160">
        <ele>92.642</ele>
        <time>2018-12-28T23:16:55Z</time>
      </trkpt>
      <trkpt lat="36.763460" lon="-119.776030">
        <ele>92.517</ele>
        <time>2018-12-28T23:17:15Z</time>
      </trkpt>
      <trkpt lat="36.763060" lon="-119.775870">
        <ele>92.577</ele>
        <time>2018-12-28T23:17:35Z</time>
      </trkpt>
      <trkpt lat="36.762740" lon="-119.775760">
        <ele>92.471</ele>
        <time>2018-12-28T23:17:55Z</time>
      </trkpt>
      <trkpt lat="36.762530" lon="-119.775710">
        <ele>92.431</ele>
        <time>2018-12-28T23:18:15Z</time>
      </trkpt>
      <trkpt lat="36.762380" lon="-119.775670">
        <ele>92.497</ele>
        <time>2018-12-28T23:18:35Z</time>
      </trkpt>
      <trkpt lat="36.762120" lon="-119.775630">
        <ele>92.346</ele>
        <time>2018-12-28T23:18:55Z</time>
      </trkpt>
      <trkpt lat="36.761580" lon="-119.775570">
        <ele>92.429</ele>
        <time>2018-12-28T23:19:15Z</time>
      </trkpt>
      <trkpt lat="36.761440" lon="-119.775570">
        <ele>92.400</ele>
        <time>2018-12-28T23:19:35Z</time>
      </trkpt>
      <trkpt lat="36.761390" lon="-119.775570">
        <ele>92.420</ele>
        <time>2018-12-28T23:19:55Z</time>
      </trkpt>
      <trkpt lat="36.761280" lon="-119.775570">
        <ele>92.408</ele>
        <time>2018-12-28T23:20:15Z</time>
      </trkpt>
      <trkpt lat="36.761200" lon="-119.775570">
        <ele>92.375</ele>
        <time>2018-12-28T23:20:35Z</time>
      </trkpt>
      <trkpt lat="36.761196" lon="-119.775573">
        <ele>92.383</ele>
        <time>2018-12-28T23:20:55Z</time>
      </trkpt>
      <trkpt lat="36.761180" lon="-119.775620">
        <ele>92.358</ele>
        <time>2018-12-28T23:21:15Z</time>
      </trkpt>
      <trkpt lat="36.761170" lon="-119.775640">
        <ele>92.388</ele>
        <time>2018-12-28T23:21:35Z</time>
      </trkpt>
      <trkpt lat="36.761150" lon="-119.775650">
        <ele>92.322</ele>
        <time>2018-12-28T23:21:55Z</time>
      </trkpt>
      <trkpt lat="36.761140" lon="-119.775660">
        <ele>92.322</ele>
        <time>2018-12-28T23:22:15Z</time>
      </trkpt>
      <trkpt lat="36.761130" lon="-119.775670">
        <ele>92.318</ele>
        <time>2018-12-28T23:22:35Z</time>
      </trkpt>
      <trkpt lat="36.761100" lon="-119.775680">
        <ele>92.357</ele>
        <time>2018-12-28T23:22:55Z</time>
      </trkpt>
      <trkpt lat="36.761080" lon="-119.775690">
        <ele>92.383</ele>
        <time>2018-12-28T23:23:15Z</time>
      </trkpt>
      <trkpt lat="36.761060" lon="-119.775690">
        <ele>92.325</ele>
        <time>2018-12-28T23:23:35Z</time>
      </trkpt>
      <trkpt lat="36.760880" lon="-119.775720">
        <ele>92.317</ele>
        <time>2018-12-28T23:23:55Z</time>
      </trkpt>
      <trkpt lat="36.760490" lon="-119.775770">
        <ele>92.308</ele>
        <time>2018-12-28T23:24:15Z</time>
      </trkpt>
      <trkpt lat="36.760110" lon="-119.775820">
        <ele>92.321</ele>
        <time>2018-12-28T23:24:35Z</time>
      </trkpt>
      <trkpt lat="36.759190" lon="-119.775940">
        <ele>92.299</ele>
        <time>2018-12-28T23:24:55Z</time>
      </trkpt>
      <trkpt lat="36.758930" lon="-119.776010">
        <ele>92.214</ele>
        <time>2018-12-28T23:25:15Z</time>
      </trkpt>
      <trkpt lat="36.758928" lon="-119.776012">
        <ele>92.234</ele>
        <time>2018-12-28T23:25:35Z</time>
      </trkpt>
      <trkpt lat="36.758870" lon="-119.776000">
        <ele>92.268</ele>
        <time>2018-12-28T23:25:55Z</time>
      </trkpt>
      <trkpt lat="36.758810" lon="-119.775990">
        <ele>92.338</ele>
        <time>2018-12-28T23:26:15Z</time>
      </trkpt>
      <trkpt lat="36.758670" lon="-119.776010">
        <ele>92.384</ele>
        <time>2018-12-28T23:26:35Z</time>
      </trkpt>
      <trkpt lat="36.758310" lon="-119.776060">
        <ele>92.443</ele>
        <time>2018-12-28T23:26:55Z</time>
      </trkpt>
      <trkpt lat="36.757940" lon="-119.776110">
        <ele>92.481</ele>
        <time>2018-12-28T23:27:15Z</time>
      </trkpt>
      <trkpt lat="36.757720" lon="-119.776130">
        <ele>92.561</ele>
        <time>2018-12-28T23:27:35Z</time>
      </trkpt>
      <trkpt lat="36.757710" lon="-119.776130">
        <ele>92.517</ele>
        <time>2018-12-28T23:27:55Z</time>
      </trkpt>
      <trkpt lat="36.757680" lon="-119.776140">
        <ele>92.508</ele>
        <time>2018-12-28T23:28:15Z</time>
      </trkpt>
      <trkpt lat="36.757420" lon="-119.776170">
        <ele>92.591</ele>
        <time>2018-12-28T23:28:35Z</time>
      </trkpt>
      <trkpt lat="36.756960" lon="-119.776220">
        <ele>92.429</ele>
        <time>2018-12-28T23:28:55Z</time>
      </trkpt>
      <trkpt lat="36.756820" lon="-119.776230">
        <ele>92.474</ele>
        <time>2018-12-28T23:29:15Z</time>
      </trkpt>
      <trkpt lat="36.756670" lon="-119.776240">
        <ele>92.424</ele>
        <time>2018-12-28T23:29:35Z</time>
      </trkpt>
      <trkpt lat="36.756550" lon="-119.776230">
        <ele>92.428</ele>
        <time>2018-12-28T23:29:55Z</time>
      </trkpt>
      <trkpt lat="36.756400" lon="-119.776210">
        <ele>92.498</ele>
        <time>2018-12-28T23:30:15Z</time>
      </trkpt>
      <trkpt lat="36.756250" lon="-119.776180">
        <ele>92.454</ele>
        <time>2018-12-28T23:30:35Z</time>
      </trkpt>
      <trkpt lat="36.756100" lon="-119.776140">
        <ele>92.463</ele>
        <time>2018-12-28T23:30:55Z</time>
      </trkpt>
      <trkpt lat="36.755870" lon="-119.776060">
        <ele>92.326</ele>
        <time>2018-12-28T23:31:15Z</time>
      </trkpt>
      <trkpt lat="36.755670" lon="-119.775950">
        <ele>92.347</ele>
        <time>2018-12-28T23:31:35Z</time>
      </trkpt>
      <trkpt lat="36.755600" lon="-119.775920">
        <ele>92.311</ele>
        <time>2018-12-28T23:31:55Z</time>
      </trkpt>
      <trkpt lat="36.755370" lon="-119.775760">
        <ele>92.308</ele>
        <time>2018-12-28T23:32:15Z</time>
      </trkpt>
      <trkpt lat="36.755310" lon="-119.775710">
        <ele>92.365</ele>
        <time>2018-12-28T23:32:35Z</time>
      </trkpt>
      <trkpt lat="36.755260" lon="-119.775670">
        <ele>92.313</ele>
        <time>2018-12-28T23:32:55Z</time>
      </trkpt>
      <trkpt lat="36.755220" lon="-119.775630">
        <ele>92.358</ele>
        <time>2018-12-28T23:33:15Z</time>
      </trkpt>
      <trkpt lat="36.755160" lon="-119.775570">
        <ele>92.398</ele>
        <time>2018-12-28T23:33:35Z</time>
      </trkpt>
      <trkpt lat="36.755150" lon="-119.775560">
        <ele>92.392</ele>
        <time>2018-12-28T23:33:55Z</time>
      </trkpt>
      <trkpt lat="36.755080" lon="-119.775500">
        <ele>92.382</ele>
        <time>2018-12-28T23:34:15Z</time>
      </trkpt>
      <trkpt lat="36.755020" lon="-119.775440">
        <ele>92.348</ele>
        <time>2018-12-28T23:34:35Z</time>
      </trkpt>
      <trkpt lat="36.755010" lon="-119.775430">
        <ele>92.357</ele>
        <time>2018-12-28T23:34:55Z</time>
      </trkpt>
      <trkpt lat="36.754750" lon="-119.775100">
        <ele>92.468</ele>
        <time>2018-12-28T23:35:15Z</time>
      </trkpt>
      <trkpt lat="36.754710" lon="-119.775020">
        <ele>92.442</ele>
        <time>2018-12-28T23:35:35Z</time>
      </trkpt>
      <trkpt lat="36.754700" lon="-119.775010">
        <ele>92.426</ele>
        <time>2018-12-28T23:35:55Z</time>
      </trkpt>
      <trkpt lat="36.754690" lon="-119.774990">
        <ele>92.408</ele>
        <time>2018-12-28T23:36:15Z</time>
      </trkpt>
      <trkpt lat="36.754650" lon="-119.774930">
        <ele>92.429</ele>
        <time>2018-12-28T23:36:35Z</time>
      </trkpt>
      <trkpt lat="36.754580" lon="-119.774800">
        <ele>92.497</ele>
        <time>2018-12-28T23:36:55Z</time>
      </trkpt>
      <trkpt lat="36.754570" lon="-119.774770">
        <ele>92.412</ele>
        <time>2018-12-28T23:37:15Z</time>
      </trkpt>
      <trkpt lat="36.754560" lon="-119.774770">
        <ele>92.432</ele>
        <time>2018-12-28T23:37:35Z</time>
      </trkpt>
      <trkpt lat="36.754460" lon="-119.774540">
        <ele>92.536</ele>
        <time>2018-12-28T23:37:55Z</time>
      </trkpt>
      <trkpt lat="36.754420" lon="-119.774460">
        <ele>92.516</ele>
        <time>2018-12-28T23:38:15Z</time>
      </trkpt>
      <trkpt lat="36.754380" lon="-119.774340">
        <ele>92.562</ele>
        <time>2018-12-28T23:38:35Z</time>
      </trkpt>
      <trkpt lat="36.754370" lon="-119.774310">
        <ele>92.571</ele>
        <time>2018-12-28T23:38:55Z</time>
      </trkpt>
      <trkpt lat="36.754310" lon="-119.774100">
        <ele>92.514</ele>
        <time>2018-12-28T23:39:15Z</time>
      </trkpt>
      <trkpt lat="36.754250" lon="-119.773860">
        <ele>92.654</ele>
        <time>2018-12-28T23:39:35Z</time>
      </trkpt>
      <trkpt lat="36.754250" lon="-119.773840">
        <ele>92.609</ele>
        <time>2018-12-28T23:39:55Z</time>
      </trkpt>
      <trkpt lat="36.754210" lon="-119.773640">
        <ele>92.608</ele>
        <time>2018-12-28T23:40:15Z</time>
      </trkpt>
      <trkpt lat="36.754200" lon="-119.773490">
        <ele>92.684</ele>
        <time>2018-12-28T23:40:35Z</time>
      </trkpt>
      <trkpt lat="36.754190" lon="-119.773330">
        <ele>92.692</ele>
        <time>2018-12-28T23:40:55Z</time>
      </trkpt>
      <trkpt lat="36.754170" lon="-119.773090">
        <ele>92.667</ele>
        <time>2018-12-28T23:41:15Z</time>
      </trkpt>
      <trkpt lat="36.754190" lon="-119.772840">
        <ele>92.627</ele>
        <time>2018-12-28T23:41:35Z</time>
      </trkpt>
      <trkpt lat="36.754220" lon="-119.772430">
        <ele>92.751</ele>
        <time>2018-12-28T23:41:55Z</time>
      </trkpt>
      <trkpt lat="36.754280" lon="-119.771830">
        <ele>92.751</ele>
        <time>2018-12-28T23:42:15Z</time>
      </trkpt>
      <trkpt lat="36.754360" lon="-119.771310">
        <ele>92.717</ele>
        <time>2018-12-28T23:42:35Z</time>
      </trkpt>
      <trkpt lat="36.754400" lon="-119.770910">
        <ele>92.726</ele>
        <time>2018-12-28T23:42:55Z</time>
      </trkpt>
      <trkpt lat="36.754420" lon="-119.770560">
        <ele>92.693</ele>
        <time>2018-12-28T23:43:15Z</time>
      </trkpt>
      <trkpt lat="36.754420" lon="-119.770110">
        <ele>92.665</ele>
        <time>2018-12-28T23:43:35Z</time>
      </trkpt>
      <trkpt lat="36.754420" lon="-119.769620">
        <ele>92.521</ele>
        <time>2018-12-28T23:43:55Z</time>
      </trkpt>
      <trkpt lat="36.754440" lon="-119.769400">
        <ele>92.508</ele>
        <time>2018-12-28T23:44:15Z</time>
      </trkpt>
      <trkpt lat="36.754440" lon="-119.768510">
        <ele>92.672</ele>
        <time>2018-12-28T23:44:35Z</time>
      </trkpt>
      <trkpt lat="36.754440" lon="-119.767710">
        <ele>92.660</ele>
        <time>2018-12-28T23:44:55Z</time>
      </trkpt>
      <trkpt lat="36.754450" lon="-119.766600">
        <ele>92.875</ele>
        <time>2018-12-28T23:45:15Z</time>
      </trkpt>
      <trkpt lat="36.754440" lon="-119.766070">
        <ele>92.865</ele>
        <time>2018-12-28T23:45:35Z</time>
      </trkpt>
      <trkpt lat="36.754460" lon="-119.765510">
        <ele>92.969</ele>
        <time>2018-12-28T23:45:55Z</time>
      </trkpt>
      <trkpt lat="36.754480" lon="-119.765330">
        <ele>93.029</ele>
        <time>2018-12-28T23:46:15Z</time>
      </trkpt>
      <trkpt lat="36.754510" lon="-119.764660">
        <ele>93.145</ele>
        <time>2018-12-28T23:46:35Z</time>
      </trkpt>
      <trkpt lat="36.754560" lon="-119.763980">
        <ele>93.214</ele>
        <time>2018-12-28T23:46:55Z</time>
      </trkpt>
      <trkpt lat="36.754700" lon="-119.762620">
        <ele>93.312</ele>
        <time>2018-12-28T23:47:15Z</time>
      </trkpt>
      <trkpt lat="36.754730" lon="-119.762300">
        <ele>93.432</ele>
        <time>2018-12-28T23:47:35Z</time>
      </trkpt>
      <trkpt lat="36.754770" lon="-119.761940">
        <ele>93.405</ele>
        <time>2018-12-28T23:47:55Z</time>
      </trkpt>
      <trkpt lat="36.754800" lon="-119.761400">
        <ele>93.508</ele>
        <time>2018-12-28T23:48:15Z</time>
      </trkpt>
      <trkpt lat="36.754810" lon="-119.761080">
        <ele>93.514</ele>
        <time>2018-12-28T23:48:35Z</time>
      </trkpt>
      <trkpt lat="36.754820" lon="-119.760170">
        <ele>93.652</ele>
        <time>2018-12-28T23:48:55Z</time>
      </trkpt>
      <trkpt lat="36.754830" lon="-119.760010">
        <ele>93.677</ele>
        <time>2018-12-28T23:49:15Z</time>
      </trkpt>
      <trkpt lat="36.754830" lon="-119.759960">
        <ele>93.697</ele>
        <time>2018-12-28T23:49:35Z</time>
      </trkpt>
      <trkpt lat="36.754850" lon="-119.759920">
        <ele>93.621</ele>
        <time>2018-12-28T23:49:55Z</time>
      </trkpt>
      <trkpt lat="36.754890" lon="-119.759830">
        <ele>93.611</ele>
        <time>2018-12-28T23:50:15Z</time>
      </trkpt>
      <trkpt lat="36.754860" lon="-119.759100">
        <ele>93.747</ele>
        <time>2018-12-28T23:50:35Z</time>
      </trkpt>
      <trkpt lat="36.754860" lon="-119.757510">
        <ele>95.286</ele>
        <time>2018-12-28T23:50:55Z</time>
      </trkpt>
      <trkpt lat="36.754860" lon="-119.756950">
        <ele>95.037</ele>
        <time>2018-12-28T23:51:15Z</time>
      </trkpt>
      <trkpt lat="36.754860" lon="-119.754610">
        <ele>96.849</ele>
        <time>2018-12-28T23:51:35Z</time>
      </trkpt>
      <trkpt lat="36.754860" lon="-119.754330">
        <ele>96.713</ele>
        <time>2018-12-28T23:51:55Z</time>
      </trkpt>
      <trkpt lat="36.754860" lon="-119.753610">
        <ele>96.208</ele>
        <time>2018-12-28T23:52:15Z</time>
      </trkpt>
      <trkpt lat="36.754870" lon="-119.752350">
        <ele>95.236</ele>
        <time>2018-12-28T23:52:35Z</time>
      </trkpt>
      <trkpt lat="36.754880" lon="-119.750290">
        <ele>94.484</ele>
        <time>2018-12-28T23:52:55Z</time>
      </trkpt>
      <trkpt lat="36.754880" lon="-119.745940">
        <ele>94.769</ele>
        <time>2018-12-28T23:53:15Z</time>
      </trkpt>
      <trkpt lat="36.754880" lon="-119.743870">
        <ele>94.969</ele>
        <time>2018-12-28T23:53:35Z</time>
      </trkpt>
      <trkpt lat="36.754880" lon="-119.741800">
        <ele>94.923</ele>
        <time>2018-12-28T23:53:55Z</time>
      </trkpt>
      <trkpt lat="36.754880" lon="-119.741460">
        <ele>94.973</ele>
        <time>2018-12-28T23:54:15Z</time>
      </trkpt>
      <trkpt lat="36.754880" lon="-119.740250">
        <ele>94.829</ele>
        <time>2018-12-28T23:54:35Z</time>
      </trkpt>
      <trkpt lat="36.754880" lon="-119.739780">
        <ele>94.828</ele>
        <time>2018-12-28T23:54:55Z</time>
      </trkpt>
      <trkpt lat="36.754880" lon="-119.739330">
        <ele>94.827</ele>
        <time>2018-12-28T23:55:15Z</time>
      </trkpt>
      <trkpt lat="36.754850" lon="-119.738650">
        <ele>94.968</ele>
        <time>2018-12-28T23:55:35Z</time>
      </trkpt>
      <trkpt lat="36.754810" lon="-119.737960">
        <ele>95.014</ele>
        <time>2018-12-28T23:55:55Z</time>
      </trkpt>
      <trkpt lat="36.754770" lon="-119.737450">
        <ele>95.108</ele>
        <time>2018-12-28T23:56:15Z</time>
      </trkpt>
      <trkpt lat="36.754680" lon="-119.736730">
        <ele>95.285</ele>
        <time>2018-12-28T23:56:35Z</time>
      </trkpt>
      <trkpt lat="36.754610" lon="-119.736280">
        <ele>95.353</ele>
        <time>2018-12-28T23:56:55Z</time>
      </trkpt>
      <trkpt lat="36.754540" lon="-119.735830">
        <ele>95.358</ele>
        <time>2018-12-28T23:57:15Z</time>
      </trkpt>
      <trkpt lat="36.754110" lon="-119.733500">
        <ele>95.518</ele>
        <time>2018-12-28T23:57:35Z</time>
      </trkpt>
      <trkpt lat="36.753840" lon="-119.732020">
        <ele>95.672</ele>
        <time>2018-12-28T23:57:55Z</time>
      </trkpt>
      <trkpt lat="36.753780" lon="-119.731700">
        <ele>95.682</ele>
        <time>2018-12-28T23:58:15Z</time>
      </trkpt>
      <trkpt lat="36.753740" lon="-119.731420">
        <ele>95.798</ele>
        <time>2018-12-28T23:58:35Z</time>
      </trkpt>
      <trkpt lat="36.753710" lon="-119.731160">
        <ele>95.777</ele>
        <time>2018-12-28T23:58:55Z</time>
      </trkpt>
      <trkpt lat="36.753660" lon="-119.730830">
        <ele>95.752</ele>
        <time>2018-12-28T23:59:15Z</time>
      </trkpt>
      <trkpt lat="36.753630" lon="-119.730500">
        <ele>95.853</ele>
        <time>2018-12-28T23:59:35Z</time>
      </trkpt>
      <trkpt lat="36.753600" lon="-119.730150">
        <ele>95.808</ele>
        <time>2018-12-28T23:59:55Z</time>
      </trkpt>
      <trkpt lat="36.753580" lon="-119.729830">
        <ele>95.808</ele>
        <time>2018-12-29T00:00:15Z</time>
      </trkpt>
      <trkpt lat="36.753560" lon="-119.729510">
        <ele>95.898</ele>
        <time>2018-12-29T00:00:35Z</time>
      </trkpt>
      <trkpt lat="36.753540" lon="-119.729050">
        <ele>95.976</ele>
        <time>2018-12-29T00:00:55Z</time>
      </trkpt>
      <trkpt lat="36.753480" lon="-119.727070">
        <ele>95.841</ele>
        <time>2018-12-29T00:01:15Z</time>
      </trkpt>
      <trkpt lat="36.753410" lon="-119.724650">
        <ele>96.351</ele>
        <time>2018-12-29T00:01:35Z</time>
      </trkpt>
      <trkpt lat="36.753310" lon="-119.721190">
        <ele>96.995</ele>
        <time>2018-12-29T00:01:55Z</time>
      </trkpt>
      <trkpt lat="36.753190" lon="-119.717410">
        <ele>97.355</ele>
        <time>2018-12-29T00:02:15Z</time>
      </trkpt>
      <trkpt lat="36.753150" lon="-119.716440">
        <ele>97.411</ele>
        <time>2018-12-29T00:02:35Z</time>
      </trkpt>
      <trkpt lat="36.753130" lon="-119.715830">
        <ele>97.560</ele>
        <time>2018-12-29T00:02:55Z</time>
      </trkpt>
      <trkpt lat="36.753100" lon="-119.714940">
        <ele>97.631</ele>
        <time>2018-12-29T00:03:15Z</time>
      </trkpt>
      <trkpt lat="36.753060" lon="-119.713720">
        <ele>97.861</ele>
        <time>2018-12-29T00:03:35Z</time>
      </trkpt>
      <trkpt lat="36.753030" lon="-119.712820">
        <ele>97.907</ele>
        <time>2018-12-29T00:03:55Z</time>
      </trkpt>
      <trkpt lat="36.753010" lon="-119.712100">
        <ele>97.908</ele>
        <time>2018-12-29T00:04:15Z</time>
      </trkpt>
      <trkpt lat="36.752990" lon="-119.711240">
        <ele>98.036</ele>
        <time>2018-12-29T00:04:35Z</time>
      </trkpt>
      <trkpt lat="36.752980" lon="-119.711040">
        <ele>98.064</ele>
        <time>2018-12-29T00:04:55Z</time>
      </trkpt>
      <trkpt lat="36.752940" lon="-119.709690">
        <ele>98.259</ele>
        <time>2018-12-29T00:05:15Z</time>
      </trkpt>
      <trkpt lat="36.752930" lon="-119.709430">
        <ele>98.399</ele>
        <time>2018-12-29T00:05:35Z</time>
      </trkpt>
      <trkpt lat="36.752920" lon="-119.709060">
        <ele>98.373</ele>
        <time>2018-12-29T00:05:55Z</time>
      </trkpt>
      <trkpt lat="36.752890" lon="-119.707960">
        <ele>98.553</ele>
        <time>2018-12-29T00:06:15Z</time>
      </trkpt>
      <trkpt lat="36.752870" lon="-119.707390">
        <ele>98.659</ele>
        <time>2018-12-29T00:06:35Z</time>
      </trkpt>
      <trkpt lat="36.752820" lon="-119.705870">
        <ele>98.918</ele>
        <time>2018-12-29T00:06:55Z</time>
      </trkpt>
      <trkpt lat="36.752570" lon="-119.700600">
        <ele>99.749</ele>
        <time>2018-12-29T00:07:15Z</time>
      </trkpt>
      <trkpt lat="36.752570" lon="-119.700380">
        <ele>99.702</ele>
        <time>2018-12-29T00:07:35Z</time>
      </trkpt>
      <trkpt lat="36.752570" lon="-119.700160">
        <ele>99.722</ele>
        <time>2018-12-29T00:07:55Z</time>
      </trkpt>
      <trkpt lat="36.752570" lon="-119.700150">
        <ele>99.708</ele>
        <time>2018-12-29T00:08:15Z</time>
      </trkpt>
      <trkpt lat="36.752580" lon="-119.699430">
        <ele>99.847</ele>
        <time>2018-12-29T00:08:35Z</time>
      </trkpt>
      <trkpt lat="36.752590" lon="-119.699110">
        <ele>99.985</ele>
        <time>2018-12-29T00:08:55Z</time>
      </trkpt>
      <trkpt lat="36.752620" lon="-119.698470">
        <ele>99.910</ele>
        <time>2018-12-29T00:09:15Z</time>
      </trkpt>
      <trkpt lat="36.752700" lon="-119.697290">
        <ele>100.190</ele>
        <time>2018-12-29T00:09:35Z</time>
      </trkpt>
      <trkpt lat="36.752770" lon="-119.696460">
        <ele>100.274</ele>
        <time>2018-12-29T00:09:55Z</time>
      </trkpt>
      <trkpt lat="36.753190" lon="-119.690670">
        <ele>101.174</ele>
        <time>2018-12-29T00:10:15Z</time>
      </trkpt>
      <trkpt lat="36.753310" lon="-119.688870">
        <ele>101.380</ele>
        <time>2018-12-29T00:10:35Z</time>
      </trkpt>
      <trkpt lat="36.753320" lon="-119.688770">
        <ele>101.489</ele>
        <time>2018-12-29T00:10:55Z</time>
      </trkpt>
      <trkpt lat="36.753360" lon="-119.688180">
        <ele>101.487</ele>
        <time>2018-12-29T00:11:15Z</time>
      </trkpt>
      <trkpt lat="36.753370" lon="-119.687900">
        <ele>101.542</ele>
        <time>2018-12-29T00:11:35Z</time>
      </trkpt>
      <trkpt lat="36.753380" lon="-119.687510">
        <ele>101.526</ele>
        <time>2018-12-29T00:11:55Z</time>
      </trkpt>
      <trkpt lat="36.753380" lon="-119.687470">
        <ele>101.508</ele>
        <time>2018-12-29T00:12:15Z</time>
      </trkpt>
      <trkpt lat="36.753410" lon="-119.686970">
        <ele>101.681</ele>
        <time>2018-12-29T00:12:35Z</time>
      </trkpt>
      <trkpt lat="36.753420" lon="-119.686820">
        <ele>101.629</ele>
        <time>2018-12-29T00:12:55Z</time>
      </trkpt>
      <trkpt lat="36.753410" lon="-119.686680">
        <ele>101.634</ele>
        <time>2018-12-29T00:13:15Z</time>
      </trkpt>
      <trkpt lat="36.753400" lon="-119.685700">
        <ele>101.844</ele>
        <time>2018-12-29T00:13:35Z</time>
      </trkpt>
      <trkpt lat="36.753380" lon="-119.685190">
        <ele>101.898</ele>
        <time>2018-12-29T00:13:55Z</time>
      </trkpt>
      <trkpt lat="36.753300" lon="-119.684280">
        <ele>102.048</ele>
        <time>2018-12-29T00:14:15Z</time>
      </trkpt>
      <trkpt lat="36.753230" lon="-119.683760">
        <ele>102.144</ele>
        <time>2018-12-29T00:14:35Z</time>
      </trkpt>
      <trkpt lat="36.753100" lon="-119.682880">
        <ele>102.263</ele>
        <time>2018-12-29T00:14:55Z</time>
      </trkpt>
      <trkpt lat="36.752960" lon="-119.682150">
        <ele>102.374</ele>
        <time>2018-12-29T00:15:15Z</time>
      </trkpt>
      <trkpt lat="36.752940" lon="-119.682060">
        <ele>102.456</ele>
        <time>2018-12-29T00:15:35Z</time>
      </trkpt>
      <trkpt lat="36.752940" lon="-119.682050">
        <ele>102.421</ele>
        <time>2018-12-29T00:15:55Z</time>
      </trkpt>
      <trkpt lat="36.752900" lon="-119.681840">
        <ele>102.408</ele>
        <time>2018-12-29T00:16:15Z</time>
      </trkpt>
      <trkpt lat="36.752810" lon="-119.681410">
        <ele>102.560</ele>
        <time>2018-12-29T00:16:35Z</time>
      </trkpt>
      <trkpt lat="36.752650" lon="-119.680790">
        <ele>102.628</ele>
        <time>2018-12-29T00:16:55Z</time>
      </trkpt>
      <trkpt lat="36.752430" lon="-119.680080">
        <ele>102.763</ele>
        <time>2018-12-29T00:17:15Z</time>
      </trkpt>
      <trkpt lat="36.752210" lon="-119.679370">
        <ele>102.753</ele>
        <time>2018-12-29T00:17:35Z</time>
      </trkpt>
      <trkpt lat="36.751910" lon="-119.678570">
        <ele>102.817</ele>
        <time>2018-12-29T00:17:55Z</time>
      </trkpt>
      <trkpt lat="36.751390" lon="-119.677370">
        <ele>102.827</ele>
        <time>2018-12-29T00:18:15Z</time>
      </trkpt>
      <trkpt lat="36.751300" lon="-119.677140">
        <ele>102.873</ele>
        <time>2018-12-29T00:18:35Z</time>
      </trkpt>
      <trkpt lat="36.750980" lon="-119.676450">
        <ele>102.842</ele>
        <time>2018-12-29T00:18:55Z</time>
      </trkpt>
      <trkpt lat="36.750490" lon="-119.675590">
        <ele>102.681</ele>
        <time>2018-12-29T00:19:15Z</time>
      </trkpt>
      <trkpt lat="36.750390" lon="-119.675440">
        <ele>102.661</ele>
        <time>2018-12-29T00:19:35Z</time>
      </trkpt>
      <trkpt lat="36.750380" lon="-119.675420">
        <ele>102.617</ele>
        <time>2018-12-29T00:19:55Z</time>
      </trkpt>
      <trkpt lat="36.750280" lon="-119.675270">
        <ele>102.608</ele>
        <time>2018-12-29T00:20:15Z</time>
      </trkpt>
      <trkpt lat="36.750240" lon="-119.675210">
        <ele>102.661</ele>
        <time>2018-12-29T00:20:35Z</time>
      </trkpt>
      <trkpt lat="36.750000" lon="-119.674830">
        <ele>102.579</ele>
        <time>2018-12-29T00:20:55Z</time>
      </trkpt>
      <trkpt lat="36.749160" lon="-119.673680">
        <ele>102.274</ele>
        <time>2018-12-29T00:21:15Z</time>
      </trkpt>
      <trkpt lat="36.748770" lon="-119.673220">
        <ele>102.164</ele>
        <time>2018-12-29T00:21:35Z</time>
      </trkpt>
      <trkpt lat="36.748670" lon="-119.673090">
        <ele>102.188</ele>
        <time>2018-12-29T00:21:55Z</time>
      </trkpt>
      <trkpt lat="36.748630" lon="-119.673040">
        <ele>102.058</ele>
        <time>2018-12-29T00:22:15Z</time>
      </trkpt>
      <trkpt lat="36.748560" lon="-119.672970">
        <ele>102.064</ele>
        <time>2018-12-29T00:22:35Z</time>
      </trkpt>
      <trkpt lat="36.748480" lon="-119.672870">
        <ele>102.063</ele>
        <time>2018-12-29T00:22:55Z</time>
      </trkpt>
      <trkpt lat="36.748220" lon="-119.672580">
        <ele>102.044</ele>
        <time>2018-12-29T00:23:15Z</time>
      </trkpt>
      <trkpt lat="36.747470" lon="-119.671830">
        <ele>101.905</ele>
        <time>2018-12-29T00:23:35Z</time>
      </trkpt>
      <trkpt lat="36.746820" lon="-119.671260">
        <ele>101.815</ele>
        <time>2018-12-29T00:23:55Z</time>
      </trkpt>
      <trkpt lat="36.746640" lon="-119.671100">
        <ele>101.808</ele>
        <time>2018-12-29T00:24:15Z</time>
      </trkpt>
      <trkpt lat="36.746340" lon="-119.670880">
        <ele>101.837</ele>
        <time>2018-12-29T00:24:35Z</time>
      </trkpt>
      <trkpt lat="36.745860" lon="-119.670520">
        <ele>101.755</ele>
        <time>2018-12-29T00:24:55Z</time>
      </trkpt>
      <trkpt lat="36.744490" lon="-119.669500">
        <ele>101.690</ele>
        <time>2018-12-29T00:25:15Z</time>
      </trkpt>
      <trkpt lat="36.744070" lon="-119.669180">
        <ele>101.280</ele>
        <time>2018-12-29T00:25:35Z</time>
      </trkpt>
      <trkpt lat="36.743780" lon="-119.668970">
        <ele>102.994</ele>
        <time>2018-12-29T00:25:55Z</time>
      </trkpt>
      <trkpt lat="36.743540" lon="-119.668790">
        <ele>103.314</ele>
        <time>2018-12-29T00:26:15Z</time>
      </trkpt>
      <trkpt lat="36.742920" lon="-119.668310">
        <ele>103.540</ele>
        <time>2018-12-29T00:26:35Z</time>
      </trkpt>
      <trkpt lat="36.742750" lon="-119.668150">
        <ele>103.619</ele>
        <time>2018-12-29T00:26:55Z</time>
      </trkpt>
      <trkpt lat="36.741870" lon="-119.667290">
        <ele>103.934</ele>
        <time>2018-12-29T00:27:15Z</time>
      </trkpt>
      <trkpt lat="36.741370" lon="-119.666760">
        <ele>103.955</ele>
        <time>2018-12-29T00:27:35Z</time>
      </trkpt>
      <trkpt lat="36.741160" lon="-119.666510">
        <ele>103.910</ele>
        <time>2018-12-29T00:27:55Z</time>
      </trkpt>
      <trkpt lat="36.740640" lon="-119.665850">
        <ele>103.608</ele>
        <time>2018-12-29T00:28:15Z</time>
      </trkpt>
      <trkpt lat="36.740410" lon="-119.665540">
        <ele>103.566</ele>
        <time>2018-12-29T00:28:35Z</time>
      </trkpt>
      <trkpt lat="36.739970" lon="-119.664890">
        <ele>103.354</ele>
        <time>2018-12-29T00:28:55Z</time>
      </trkpt>
      <trkpt lat="36.739760" lon="-119.664550">
        <ele>103.399</ele>
        <time>2018-12-29T00:29:15Z</time>
      </trkpt>
      <trkpt lat="36.739580" lon="-119.664240">
        <ele>103.269</ele>
        <time>2018-12-29T00:29:35Z</time>
      </trkpt>
      <trkpt lat="36.739490" lon="-119.664090">
        <ele>103.273</ele>
        <time>2018-12-29T00:29:55Z</time>
      </trkpt>
      <trkpt lat="36.739390" lon="-119.663910">
        <ele>103.283</ele>
        <time>2018-12-29T00:30:15Z</time>
      </trkpt>
      <trkpt lat="36.739380" lon="-119.663900">
        <ele>103.219</ele>
        <time>2018-12-29T00:30:35Z</time>
      </trkpt>
      <trkpt lat="36.739380" lon="-119.663890">
        <ele>103.238</ele>
        <time>2018-12-29T00:30:55Z</time>
      </trkpt>
      <trkpt lat="36.739170" lon="-119.663540">
        <ele>103.144</ele>
        <time>2018-12-29T00:31:15Z</time>
      </trkpt>
      <trkpt lat="36.739070" lon="-119.663340">
        <ele>103.105</ele>
        <time>2018-12-29T00:31:35Z</time>
      </trkpt>
      <trkpt lat="36.738740" lon="-119.662690">
        <ele>103.215</ele>
        <time>2018-12-29T00:31:55Z</time>
      </trkpt>
      <trkpt lat="36.738460" lon="-119.662020">
        <ele>103.608</ele>
        <time>2018-12-29T00:32:15Z</time>
      </trkpt>
      <trkpt lat="36.738100" lon="-119.661100">
        <ele>104.487</ele>
        <time>2018-12-29T00:32:35Z</time>
      </trkpt>
      <trkpt lat="36.737970" lon="-119.660730">
        <ele>104.435</ele>
        <time>2018-12-29T00:32:55Z</time>
      </trkpt>
      <trkpt lat="36.737820" lon="-119.660280">
        <ele>104.450</ele>
        <time>2018-12-29T00:33:15Z</time>
      </trkpt>
      <trkpt lat="36.737700" lon="-119.659870">
        <ele>104.410</ele>
        <time>2018-12-29T00:33:35Z</time>
      </trkpt>
      <trkpt lat="36.737570" lon="-119.659420">
        <ele>104.444</ele>
        <time>2018-12-29T00:33:55Z</time>
      </trkpt>
      <trkpt lat="36.737340" lon="-119.658340">
        <ele>104.474</ele>
        <time>2018-12-29T00:34:15Z</time>
      </trkpt>
      <trkpt lat="36.737250" lon="-119.657900">
        <ele>104.230</ele>
        <time>2018-12-29T00:34:35Z</time>
      </trkpt>
      <trkpt lat="36.737140" lon="-119.657260">
        <ele>103.639</ele>
        <time>2018-12-29T00:34:55Z</time>
      </trkpt>
      <trkpt lat="36.737100" lon="-119.656940">
        <ele>103.559</ele>
        <time>2018-12-29T00:35:15Z</time>
      </trkpt>
      <trkpt lat="36.737070" lon="-119.656660">
        <ele>103.403</ele>
        <time>2018-12-29T00:35:35Z</time>
      </trkpt>
      <trkpt lat="36.737040" lon="-119.656360">
        <ele>103.323</ele>
        <time>2018-12-29T00:35:55Z</time>
      </trkpt>
      <trkpt lat="36.737010" lon="-119.656030">
        <ele>103.308</ele>
        <time>2018-12-29T00:36:15Z</time>
      </trkpt>
      <trkpt lat="36.736980" lon="-119.655670">
        <ele>103.318</ele>
        <time>2018-12-29T00:36:35Z</time>
      </trkpt>
      <trkpt lat="36.736960" lon="-119.655320">
        <ele>103.316</ele>
        <time>2018-12-29T00:36:55Z</time>
      </trkpt>
      <trkpt lat="36.736940" lon="-119.654640">
        <ele>103.391</ele>
        <time>2018-12-29T00:37:15Z</time>
      </trkpt>
      <trkpt lat="36.736940" lon="-119.653860">
        <ele>103.321</ele>
        <time>2018-12-29T00:37:35Z</time>
      </trkpt>
      <trkpt lat="36.736930" lon="-119.652870">
        <ele>103.345</ele>
        <time>2018-12-29T00:37:55Z</time>
      </trkpt>
      <trkpt lat="36.736940" lon="-119.651730">
        <ele>103.385</ele>
        <time>2018-12-29T00:38:15Z</time>
      </trkpt>
      <trkpt lat="36.736920" lon="-119.646010">
        <ele>103.971</ele>
        <time>2018-12-29T00:38:35Z</time>
      </trkpt>
      <trkpt lat="36.736880" lon="-119.644730">
        <ele>104.220</ele>
        <time>2018-12-29T00:38:55Z</time>
      </trkpt>
      <trkpt lat="36.736850" lon="-119.644010">
        <ele>104.436</ele>
        <time>2018-12-29T00:39:15Z</time>
      </trkpt>
      <trkpt lat="36.736820" lon="-119.643410">
        <ele>104.517</ele>
        <time>2018-12-29T00:39:35Z</time>
      </trkpt>
      <trkpt lat="36.736770" lon="-119.642390">
        <ele>104.818</ele>
        <time>2018-12-29T00:39:55Z</time>
      </trkpt>
      <trkpt lat="36.736700" lon="-119.641170">
        <ele>105.108</ele>
        <time>2018-12-29T00:40:15Z</time>
      </trkpt>
      <trkpt lat="36.736410" lon="-119.636940">
        <ele>105.746</ele>
        <time>2018-12-29T00:40:35Z</time>
      </trkpt>
      <trkpt lat="36.736410" lon="-119.636670">
        <ele>105.854</ele>
        <time>2018-12-29T00:40:55Z</time>
      </trkpt>
      <trkpt lat="36.736390" lon="-119.636050">
        <ele>105.879</ele>
        <time>2018-12-29T00:41:15Z</time>
      </trkpt>
      <trkpt lat="36.736300" lon="-119.634630">
        <ele>105.899</ele>
        <time>2018-12-29T00:41:35Z</time>
      </trkpt>
      <trkpt lat="36.736260" lon="-119.633920">
        <ele>105.893</ele>
        <time>2018-12-29T00:41:55Z</time>
      </trkpt>
      <trkpt lat="36.736200" lon="-119.633070">
        <ele>105.943</ele>
        <time>2018-12-29T00:42:15Z</time>
      </trkpt>
      <trkpt lat="36.736130" lon="-119.631720">
        <ele>106.159</ele>
        <time>2018-12-29T00:42:35Z</time>
      </trkpt>
      <trkpt lat="36.736060" lon="-119.630940">
        <ele>106.378</ele>
        <time>2018-12-29T00:42:55Z</time>
      </trkpt>
      <trkpt lat="36.736050" lon="-119.630760">
        <ele>106.366</ele>
        <time>2018-12-29T00:43:15Z</time>
      </trkpt>
      <trkpt lat="36.736030" lon="-119.630280">
        <ele>106.329</ele>
        <time>2018-12-29T00:43:35Z</time>
      </trkpt>
      <trkpt lat="36.735900" lon="-119.627890">
        <ele>106.921</ele>
        <time>2018-12-29T00:43:55Z</time>
      </trkpt>
      <trkpt lat="36.735800" lon="-119.619030">
        <ele>107.208</ele>
        <time>2018-12-29T00:44:15Z</time>
      </trkpt>
      <trkpt lat="36.735780" lon="-119.615800">
        <ele>107.319</ele>
        <time>2018-12-29T00:44:35Z</time>
      </trkpt>
      <trkpt lat="36.735760" lon="-119.613380">
        <ele>107.597</ele>
        <time>2018-12-29T00:44:55Z</time>
      </trkpt>
      <trkpt lat="36.735760" lon="-119.612690">
        <ele>107.692</ele>
        <time>2018-12-29T00:45:15Z</time>
      </trkpt>
      <trkpt lat="36.735750" lon="-119.612160">
        <ele>107.792</ele>
        <time>2018-12-29T00:45:35Z</time>
      </trkpt>
      <trkpt lat="36.735740" lon="-119.611460">
        <ele>107.736</ele>
        <time>2018-12-29T00:45:55Z</time>
      </trkpt>
      <trkpt lat="36.735730" lon="-119.610050">
        <ele>107.886</ele>
        <time>2018-12-29T00:46:15Z</time>
      </trkpt>
      <trkpt lat="36.735740" lon="-119.609130">
        <ele>107.962</ele>
        <time>2018-12-29T00:46:35Z</time>
      </trkpt>
      <trkpt lat="36.735760" lon="-119.605820">
        <ele>109.051</ele>
        <time>2018-12-29T00:46:55Z</time>
      </trkpt>
      <trkpt lat="36.735770" lon="-119.602770">
        <ele>109.129</ele>
        <time>2018-12-29T00:47:15Z</time>
      </trkpt>
      <trkpt lat="36.735790" lon="-119.598510">
        <ele>109.600</ele>
        <time>2018-12-29T00:47:35Z</time>
      </trkpt>
      <trkpt lat="36.735810" lon="-119.593970">
        <ele>110.420</ele>
        <time>2018-12-29T00:47:55Z</time>
      </trkpt>
      <trkpt lat="36.735820" lon="-119.591980">
        <ele>110.708</ele>
        <time>2018-12-29T00:48:15Z</time>
      </trkpt>
      <trkpt lat="36.735860" lon="-119.584960">
        <ele>111.985</ele>
        <time>2018-12-29T00:48:35Z</time>
      </trkpt>
      <trkpt lat="36.735880" lon="-119.583000">
        <ele>112.153</ele>
        <time>2018-12-29T00:48:55Z</time>
      </trkpt>
      <trkpt lat="36.735880" lon="-119.582450">
        <ele>112.268</ele>
        <time>2018-12-29T00:49:15Z</time>
      </trkpt>
      <trkpt lat="36.735880" lon="-119.581490">
        <ele>112.378</ele>
        <time>2018-12-29T00:49:35Z</time>
      </trkpt>
      <trkpt lat="36.735880" lon="-119.579800">
        <ele>112.652</ele>
        <time>2018-12-29T00:49:55Z</time>
      </trkpt>
      <trkpt lat="36.735890" lon="-119.578280">
        <ele>112.972</ele>
        <time>2018-12-29T00:50:15Z</time>
      </trkpt>
      <trkpt lat="36.735900" lon="-119.576600">
        <ele>113.468</ele>
        <time>2018-12-29T00:50:35Z</time>
      </trkpt>
      <trkpt lat="36.735910" lon="-119.576290">
        <ele>113.557</ele>
        <time>2018-12-29T00:50:55Z</time>
      </trkpt>
      <trkpt lat="36.735900" lon="-119.575900">
        <ele>113.512</ele>
        <time>2018-12-29T00:51:15Z</time>
      </trkpt>
      <trkpt lat="36.735910" lon="-119.574130">
        <ele>113.632</ele>
        <time>2018-12-29T00:51:35Z</time>
      </trkpt>
      <trkpt lat="36.735920" lon="-119.573580">
        <ele>113.705</ele>
        <time>2018-12-29T00:51:55Z</time>
      </trkpt>
      <trkpt lat="36.735930" lon="-119.571600">
        <ele>113.908</ele>
        <time>2018-12-29T00:52:15Z</time>
      </trkpt>
      <trkpt lat="36.735930" lon="-119.571470">
        <ele>113.974</ele>
        <time>2018-12-29T00:52:35Z</time>
      </trkpt>
      <trkpt lat="36.735940" lon="-119.569680">
        <ele>114.242</ele>
        <time>2018-12-29T00:52:55Z</time>
      </trkpt>
      <trkpt lat="36.735940" lon="-119.568440">
        <ele>114.437</ele>
        <time>2018-12-29T00:53:15Z</time>
      </trkpt>
      <trkpt lat="36.735950" lon="-119.566660">
        <ele>114.897</ele>
        <time>2018-12-29T00:53:35Z</time>
      </trkpt>
      <trkpt lat="36.735950" lon="-119.565450">
        <ele>115.081</ele>
        <time>2018-12-29T00:53:55Z</time>
      </trkpt>
      <trkpt lat="36.735950" lon="-119.563230">
        <ele>115.321</ele>
        <time>2018-12-29T00:54:15Z</time>
      </trkpt>
      <trkpt lat="36.735940" lon="-119.560470">
        <ele>116.497</ele>
        <time>2018-12-29T00:54:35Z</time>
      </trkpt>
      <trkpt lat="36.735930" lon="-119.558950">
        <ele>116.856</ele>
        <time>2018-12-29T00:54:55Z</time>
      </trkpt>
      <trkpt lat="36.735930" lon="-119.557380">
        <ele>117.153</ele>
        <time>2018-12-29T00:55:15Z</time>
      </trkpt>
      <trkpt lat="36.735920" lon="-119.556400">
        <ele>116.604</ele>
        <time>2018-12-29T00:55:35Z</time>
      </trkpt>
      <trkpt lat="36.735920" lon="-119.556220">
        <ele>116.614</ele>
        <time>2018-12-29T00:55:55Z</time>
      </trkpt>
      <trkpt lat="36.735890" lon="-119.551380">
        <ele>116.408</ele>
        <time>2018-12-29T00:56:15Z</time>
      </trkpt>
      <trkpt lat="36.735870" lon="-119.542950">
        <ele>116.628</ele>
        <time>2018-12-29T00:56:35Z</time>
      </trkpt>
      <trkpt lat="36.735790" lon="-119.529270">
        <ele>121.746</ele>
        <time>2018-12-29T00:56:55Z</time>
      </trkpt>
      <trkpt lat="36.735640" lon="-119.515790">
        <ele>118.391</ele>
        <time>2018-12-29T00:57:15Z</time>
      </trkpt>
      <trkpt lat="36.735640" lon="-119.515793">
        <ele>118.391</ele>
        <time>2018-12-29T00:57:35Z</time>
      </trkpt>
      <trkpt lat="36.735620" lon="-119.515650">
        <ele>118.395</ele>
        <time>2018-12-29T00:57:55Z</time>
      </trkpt>
      <trkpt lat="36.735540" lon="-119.514960">
        <ele>118.215</ele>
        <time>2018-12-29T00:58:15Z</time>
      </trkpt>
      <trkpt lat="36.735490" lon="-119.514610">
        <ele>118.291</ele>
        <time>2018-12-29T00:58:35Z</time>
      </trkpt>
      <trkpt lat="36.735440" lon="-119.514290">
        <ele>118.160</ele>
        <time>2018-12-29T00:58:55Z</time>
      </trkpt>
      <trkpt lat="36.735350" lon="-119.513670">
        <ele>118.118</ele>
        <time>2018-12-29T00:59:15Z</time>
      </trkpt>
      <trkpt lat="36.735340" lon="-119.513520">
        <ele>118.198</ele>
        <time>2018-12-29T00:59:35Z</time>
      </trkpt>
      <trkpt lat="36.735240" lon="-119.513030">
        <ele>118.117</ele>
        <time>2018-12-29T00:59:55Z</time>
      </trkpt>
      <trkpt lat="36.735160" lon="-119.512810">
        <ele>118.108</ele>
        <time>2018-12-29T01:00:15Z</time>
      </trkpt>
      <trkpt lat="36.735110" lon="-119.512360">
        <ele>118.194</ele>
        <time>2018-12-29T01:00:35Z</time>
      </trkpt>
      <trkpt lat="36.735010" lon="-119.511850">
        <ele>118.342</ele>
        <time>2018-12-29T01:00:55Z</time>
      </trkpt>
      <trkpt lat="36.734850" lon="-119.511040">
        <ele>118.797</ele>
        <time>2018-12-29T01:01:15Z</time>
      </trkpt>
      <trkpt lat="36.734570" lon="-119.509560">
        <ele>119.457</ele>
        <time>2018-12-29T01:01:35Z</time>
      </trkpt>
      <trkpt lat="36.734500" lon="-119.509120">
        <ele>119.611</ele>
        <time>2018-12-29T01:01:55Z</time>
      </trkpt>
      <trkpt lat="36.734450" lon="-119.508660">
        <ele>119.791</ele>
        <time>2018-12-29T01:02:15Z</time>
      </trkpt>
      <trkpt lat="36.734440" lon="-119.508400">
        <ele>119.857</ele>
        <time>2018-12-29T01:02:35Z</time>
      </trkpt>
      <trkpt lat="36.734440" lon="-119.508200">
        <ele>119.996</ele>
        <time>2018-12-29T01:02:55Z</time>
      </trkpt>
      <trkpt lat="36.734450" lon="-119.507980">
        <ele>119.925</ele>
        <time>2018-12-29T01:03:15Z</time>
      </trkpt>
      <trkpt lat="36.734470" lon="-119.507800">
        <ele>119.926</ele>
        <time>2018-12-29T01:03:35Z</time>
      </trkpt>
      <trkpt lat="36.734500" lon="-119.507620">
        <ele>120.008</ele>
        <time>2018-12-29T01:03:55Z</time>
      </trkpt>
      <trkpt lat="36.734560" lon="-119.507270">
        <ele>120.008</ele>
        <time>2018-12-29T01:04:15Z</time>
      </trkpt>
      <trkpt lat="36.734620" lon="-119.506850">
        <ele>120.135</ele>
        <time>2018-12-29T01:04:35Z</time>
      </trkpt>
      <trkpt lat="36.734660" lon="-119.506490">
        <ele>120.183</ele>
        <time>2018-12-29T01:04:55Z</time>
      </trkpt>
      <trkpt lat="36.734670" lon="-119.506290">
        <ele>120.188</ele>
        <time>2018-12-29T01:05:15Z</time>
      </trkpt>
      <trkpt lat="36.734660" lon="-119.506010">
        <ele>120.118</ele>
        <time>2018-12-29T01:05:35Z</time>
      </trkpt>
      <trkpt lat="36.734630" lon="-119.505750">
        <ele>120.132</ele>
        <time>2018-12-29T01:05:55Z</time>
      </trkpt>
      <trkpt lat="36.734600" lon="-119.505510">
        <ele>120.192</ele>
        <time>2018-12-29T01:06:15Z</time>
      </trkpt>
      <trkpt lat="36.734510" lon="-119.505140">
        <ele>120.058</ele>
        <time>2018-12-29T01:06:35Z</time>
      </trkpt>
      <trkpt lat="36.734512" lon="-119.505141">
        <ele>120.097</ele>
        <time>2018-12-29T01:06:55Z</time>
      </trkpt>
      <trkpt lat="36.734430" lon="-119.504930">
        <ele>120.067</ele>
        <time>2018-12-29T01:07:15Z</time>
      </trkpt>
      <trkpt lat="36.734370" lon="-119.504800">
        <ele>120.081</ele>
        <time>2018-12-29T01:07:35Z</time>
      </trkpt>
      <trkpt lat="36.734320" lon="-119.504670">
        <ele>120.019</ele>
        <time>2018-12-29T01:07:55Z</time>
      </trkpt>
      <trkpt lat="36.734270" lon="-119.504530">
        <ele>120.008</ele>
        <time>2018-12-29T01:08:15Z</time>
      </trkpt>
      <trkpt lat="36.734230" lon="-119.504440">
        <ele>119.959</ele>
        <time>2018-12-29T01:08:35Z</time>
      </trkpt>
      <trkpt lat="36.734150" lon="-119.504210">
        <ele>119.977</ele>
        <time>2018-12-29T01:08:55Z</time>
      </trkpt>
      <trkpt lat="36.734100" lon="-119.504040">
        <ele>119.972</ele>
        <time>2018-12-29T01:09:15Z</time>
      </trkpt>
      <trkpt lat="36.734070" lon="-119.503940">
        <ele>119.972</ele>
        <time>2018-12-29T01:09:35Z</time>
      </trkpt>
      <trkpt lat="36.734050" lon="-119.503830">
        <ele>119.956</ele>
        <time>2018-12-29T01:09:55Z</time>
      </trkpt>
      <trkpt lat="36.734010" lon="-119.503670">
        <ele>119.916</ele>
        <time>2018-12-29T01:10:15Z</time>
      </trkpt>
      <trkpt lat="36.733980" lon="-119.503560">
        <ele>120.052</ele>
        <time>2018-12-29T01:10:35Z</time>
      </trkpt>
      <trkpt lat="36.733960" lon="-119.503440">
        <ele>120.071</ele>
        <time>2018-12-29T01:10:55Z</time>
      </trkpt>
      <trkpt lat="36.733940" lon="-119.503280">
        <ele>120.055</ele>
        <time>2018-12-29T01:11:15Z</time>
      </trkpt>
      <trkpt lat="36.733910" lon="-119.503130">
        <ele>120.007</ele>
        <time>2018-12-29T01:11:35Z</time>
      </trkpt>
      <trkpt lat="36.733900" lon="-119.503020">
        <ele>120.017</ele>
        <time>2018-12-29T01:11:55Z</time>
      </trkpt>
      <trkpt lat="36.733890" lon="-119.502850">
        <ele>120.008</ele>
        <time>2018-12-29T01:12:15Z</time>
      </trkpt>
      <trkpt lat="36.733870" lon="-119.502630">
        <ele>120.058</ele>
        <time>2018-12-29T01:12:35Z</time>
      </trkpt>
      <trkpt lat="36.733860" lon="-119.502440">
        <ele>120.036</ele>
        <time>2018-12-29T01:12:55Z</time>
      </trkpt>
      <trkpt lat="36.733830" lon="-119.502040">
        <ele>120.141</ele>
        <time>2018-12-29T01:13:15Z</time>
      </trkpt>
      <trkpt lat="36.733620" lon="-119.499020">
        <ele>120.151</ele>
        <time>2018-12-29T01:13:35Z</time>
      </trkpt>
      <trkpt lat="36.733540" lon="-119.497840">
        <ele>119.975</ele>
        <time>2018-12-29T01:13:55Z</time>
      </trkpt>
      <trkpt lat="36.733520" lon="-119.497570">
        <ele>119.975</ele>
        <time>2018-12-29T01:14:15Z</time>
      </trkpt>
      <trkpt lat="36.733510" lon="-119.497280">
        <ele>119.961</ele>
        <time>2018-12-29T01:14:35Z</time>
      </trkpt>
      <trkpt lat="36.733430" lon="-119.495880">
        <ele>119.840</ele>
        <time>2018-12-29T01:14:55Z</time>
      </trkpt>
      <trkpt lat="36.733400" lon="-119.495380">
        <ele>119.784</ele>
        <time>2018-12-29T01:15:15Z</time>
      </trkpt>
      <trkpt lat="36.733380" lon="-119.495200">
        <ele>119.707</ele>
        <time>2018-12-29T01:15:35Z</time>
      </trkpt>
      <trkpt lat="36.733360" lon="-119.494930">
        <ele>119.617</ele>
        <time>2018-12-29T01:15:55Z</time>
      </trkpt>
      <trkpt lat="36.733330" lon="-119.494480">
        <ele>118.508</ele>
        <time>2018-12-29T01:16:15Z</time>
      </trkpt>
      <trkpt lat="36.733290" lon="-119.494100">
        <ele>116.941</ele>
        <time>2018-12-29T01:16:35Z</time>
      </trkpt>
      <trkpt lat="36.733160" lon="-119.492620">
        <ele>117.869</ele>
        <time>2018-12-29T01:16:55Z</time>
      </trkpt>
      <trkpt lat="36.732920" lon="-119.489970">
        <ele>116.894</ele>
        <time>2018-12-29T01:17:15Z</time>
      </trkpt>
      <trkpt lat="36.732840" lon="-119.489200">
        <ele>117.184</ele>
        <time>2018-12-29T01:17:35Z</time>
      </trkpt>
      <trkpt lat="36.732750" lon="-119.488330">
        <ele>117.268</ele>
        <time>2018-12-29T01:17:55Z</time>
      </trkpt>
      <trkpt lat="36.732620" lon="-119.487150">
        <ele>118.188</ele>
        <time>2018-12-29T01:18:15Z</time>
      </trkpt>
      <trkpt lat="36.732520" lon="-119.486200">
        <ele>118.424</ele>
        <time>2018-12-29T01:18:35Z</time>
      </trkpt>
      <trkpt lat="36.732470" lon="-119.485610">
        <ele>118.673</ele>
        <time>2018-12-29T01:18:55Z</time>
      </trkpt>
      <trkpt lat="36.732410" lon="-119.484910">
        <ele>118.745</ele>
        <time>2018-12-29T01:19:15Z</time>
      </trkpt>
      <trkpt lat="36.732390" lon="-119.484770">
        <ele>118.747</ele>
        <time>2018-12-29T01:19:35Z</time>
      </trkpt>
      <trkpt lat="36.732320" lon="-119.483930">
        <ele>118.911</ele>
        <time>2018-12-29T01:19:55Z</time>
      </trkpt>
      <trkpt lat="36.732200" lon="-119.482600">
        <ele>119.008</ele>
        <time>2018-12-29T01:20:15Z</time>
      </trkpt>
      <trkpt lat="36.732120" lon="-119.481810">
        <ele>119.017</ele>
        <time>2018-12-29T01:20:35Z</time>
      </trkpt>
      <trkpt lat="36.732090" lon="-119.481320">
        <ele>119.135</ele>
        <time>2018-12-29T01:20:55Z</time>
      </trkpt>
      <trkpt lat="36.732060" lon="-119.481020">
        <ele>119.190</ele>
        <time>2018-12-29T01:21:15Z</time>
      </trkpt>
      <trkpt lat="36.732040" lon="-119.480580">
        <ele>119.260</ele>
        <time>2018-12-29T01:21:35Z</time>
      </trkpt>
      <trkpt lat="36.732030" lon="-119.480300">
        <ele>119.284</ele>
        <time>2018-12-29T01:21:55Z</time>
      </trkpt>
      <trkpt lat="36.732020" lon="-119.480120">
        <ele>119.314</ele>
        <time>2018-12-29T01:22:15Z</time>
      </trkpt>
      <trkpt lat="36.732000" lon="-119.479590">
        <ele>119.570</ele>
        <time>2018-12-29T01:22:35Z</time>
      </trkpt>
      <trkpt lat="36.731990" lon="-119.479160">
        <ele>119.619</ele>
        <time>2018-12-29T01:22:55Z</time>
      </trkpt>
      <trkpt lat="36.731980" lon="-119.478640">
        <ele>119.757</ele>
        <time>2018-12-29T01:23:15Z</time>
      </trkpt>
      <trkpt lat="36.731970" lon="-119.478060">
        <ele>119.700</ele>
        <time>2018-12-29T01:23:35Z</time>
      </trkpt>
      <trkpt lat="36.731960" lon="-119.477360">
        <ele>119.620</ele>
        <time>2018-12-29T01:23:55Z</time>
      </trkpt>
      <trkpt lat="36.731960" lon="-119.477110">
        <ele>119.608</ele>
        <time>2018-12-29T01:24:15Z</time>
      </trkpt>
      <trkpt lat="36.731940" lon="-119.476370">
        <ele>119.718</ele>
        <time>2018-12-29T01:24:35Z</time>
      </trkpt>
      <trkpt lat="36.731930" lon="-119.475660">
        <ele>119.816</ele>
        <time>2018-12-29T01:24:55Z</time>
      </trkpt>
      <trkpt lat="36.731920" lon="-119.475210">
        <ele>120.221</ele>
        <time>2018-12-29T01:25:15Z</time>
      </trkpt>
      <trkpt lat="36.731910" lon="-119.474910">
        <ele>121.041</ele>
        <time>2018-12-29T01:25:35Z</time>
      </trkpt>
      <trkpt lat="36.731900" lon="-119.474770">
        <ele>121.265</ele>
        <time>2018-12-29T01:25:55Z</time>
      </trkpt>
      <trkpt lat="36.731880" lon="-119.474620">
        <ele>121.245</ele>
        <time>2018-12-29T01:26:15Z</time>
      </trkpt>
      <trkpt lat="36.731870" lon="-119.474480">
        <ele>121.211</ele>
        <time>2018-12-29T01:26:35Z</time>
      </trkpt>
      <trkpt lat="36.731850" lon="-119.474310">
        <ele>121.220</ele>
        <time>2018-12-29T01:26:55Z</time>
      </trkpt>
      <trkpt lat="36.731820" lon="-119.474150">
        <ele>121.253</ele>
        <time>2018-12-29T01:27:15Z</time>
      </trkpt>
      <trkpt lat="36.731800" lon="-119.474010">
        <ele>121.204</ele>
        <time>2018-12-29T01:27:35Z</time>
      </trkpt>
      <trkpt lat="36.731750" lon="-119.473730">
        <ele>121.214</ele>
        <time>2018-12-29T01:27:55Z</time>
      </trkpt>
      <trkpt lat="36.731690" lon="-119.473440">
        <ele>121.108</ele>
        <time>2018-12-29T01:28:15Z</time>
      </trkpt>
      <trkpt lat="36.731660" lon="-119.473290">
        <ele>121.138</ele>
        <time>2018-12-29T01:28:35Z</time>
      </trkpt>
      <trkpt lat="36.731610" lon="-119.473110">
        <ele>121.226</ele>
        <time>2018-12-29T01:28:55Z</time>
      </trkpt>
      <trkpt lat="36.731600" lon="-119.473100">
        <ele>121.281</ele>
        <time>2018-12-29T01:29:15Z</time>
      </trkpt>
      <trkpt lat="36.731570" lon="-119.473040">
        <ele>121.211</ele>
        <time>2018-12-29T01:29:35Z</time>
      </trkpt>
      <trkpt lat="36.731560" lon="-119.473030">
        <ele>121.235</ele>
        <time>2018-12-29T01:29:55Z</time>
      </trkpt>
      <trkpt lat="36.731540" lon="-119.472960">
        <ele>121.295</ele>
        <time>2018-12-29T01:30:15Z</time>
      </trkpt>
      <trkpt lat="36.731470" lon="-119.472780">
        <ele>121.221</ele>
        <time>2018-12-29T01:30:35Z</time>
      </trkpt>
      <trkpt lat="36.731390" lon="-119.472570">
        <ele>121.190</ele>
        <time>2018-12-29T01:30:55Z</time>
      </trkpt>
      <trkpt lat="36.731330" lon="-119.472440">
        <ele>121.177</ele>
        <time>2018-12-29T01:31:15Z</time>
      </trkpt>
      <trkpt lat="36.731170" lon="-119.472060">
        <ele>120.361</ele>
        <time>2018-12-29T01:31:35Z</time>
      </trkpt>
      <trkpt lat="36.731040" lon="-119.471740">
        <ele>119.227</ele>
        <time>2018-12-29T01:31:55Z</time>
      </trkpt>
      <trkpt lat="36.730950" lon="-119.471500">
        <ele>119.508</ele>
        <time>2018-12-29T01:32:15Z</time>
      </trkpt>
      <trkpt lat="36.730650" lon="-119.470700">
        <ele>124.080</ele>
        <time>2018-12-29T01:32:35Z</time>
      </trkpt>
      <trkpt lat="36.730420" lon="-119.470120">
        <ele>123.688</ele>
        <time>2018-12-29T01:32:55Z</time>
      </trkpt>
      <trkpt lat="36.729910" lon="-119.468790">
        <ele>121.833</ele>
        <time>2018-12-29T01:33:15Z</time>
      </trkpt>
      <trkpt lat="36.729800" lon="-119.468500">
        <ele>121.473</ele>
        <time>2018-12-29T01:33:35Z</time>
      </trkpt>
      <trkpt lat="36.729700" lon="-119.468230">
        <ele>121.387</ele>
        <time>2018-12-29T01:33:55Z</time>
      </trkpt>
      <trkpt lat="36.729190" lon="-119.466990">
        <ele>121.287</ele>
        <time>2018-12-29T01:34:15Z</time>
      </trkpt>
      <trkpt lat="36.728920" lon="-119.466300">
        <ele>121.493</ele>
        <time>2018-12-29T01:34:35Z</time>
      </trkpt>
      <trkpt lat="36.728650" lon="-119.465600">
        <ele>121.382</ele>
        <time>2018-12-29T01:34:55Z</time>
      </trkpt>
      <trkpt lat="36.728450" lon="-119.465070">
        <ele>121.239</ele>
        <time>2018-12-29T01:35:15Z</time>
      </trkpt>
      <trkpt lat="36.728360" lon="-119.464850">
        <ele>121.201</ele>
        <time>2018-12-29T01:35:35Z</time>
      </trkpt>
      <trkpt lat="36.728320" lon="-119.464730">
        <ele>121.221</ele>
        <time>2018-12-29T01:35:55Z</time>
      </trkpt>
      <trkpt lat="36.728300" lon="-119.464670">
        <ele>121.208</ele>
        <time>2018-12-29T01:36:15Z</time>
      </trkpt>
      <trkpt lat="36.728280" lon="-119.464620">
        <ele>121.276</ele>
        <time>2018-12-29T01:36:35Z</time>
      </trkpt>
      <trkpt lat="36.728260" lon="-119.464520">
        <ele>121.214</ele>
        <time>2018-12-29T01:36:55Z</time>
      </trkpt>
      <trkpt lat="36.728050" lon="-119.463990">
        <ele>121.269</ele>
        <time>2018-12-29T01:37:15Z</time>
      </trkpt>
      <trkpt lat="36.727960" lon="-119.463760">
        <ele>121.289</ele>
        <time>2018-12-29T01:37:35Z</time>
      </trkpt>
      <trkpt lat="36.727910" lon="-119.463640">
        <ele>121.263</ele>
        <time>2018-12-29T01:37:55Z</time>
      </trkpt>
      <trkpt lat="36.727850" lon="-119.463520">
        <ele>121.253</ele>
        <time>2018-12-29T01:38:15Z</time>
      </trkpt>
      <trkpt lat="36.727810" lon="-119.463430">
        <ele>121.269</ele>
        <time>2018-12-29T01:38:35Z</time>
      </trkpt>
      <trkpt lat="36.727760" lon="-119.463320">
        <ele>121.238</ele>
        <time>2018-12-29T01:38:55Z</time>
      </trkpt>
      <trkpt lat="36.727700" lon="-119.463210">
        <ele>121.233</ele>
        <time>2018-12-29T01:39:15Z</time>
      </trkpt>
      <trkpt lat="36.727560" lon="-119.462960">
        <ele>121.223</ele>
        <time>2018-12-29T01:39:35Z</time>
      </trkpt>
      <trkpt lat="36.727400" lon="-119.462700">
        <ele>121.115</ele>
        <time>2018-12-29T01:39:55Z</time>
      </trkpt>
      <trkpt lat="36.727330" lon="-119.462580">
        <ele>121.008</ele>
        <time>2018-12-29T01:40:15Z</time>
      </trkpt>
      <trkpt lat="36.727210" lon="-119.462420">
        <ele>121.026</ele>
        <time>2018-12-29T01:40:35Z</time>
      </trkpt>
      <trkpt lat="36.727110" lon="-119.462280">
        <ele>121.054</ele>
        <time>2018-12-29T01:40:55Z</time>
      </trkpt>
      <trkpt lat="36.727000" lon="-119.462130">
        <ele>121.169</ele>
        <time>2018-12-29T01:41:15Z</time>
      </trkpt>
      <trkpt lat="36.726900" lon="-119.462010">
        <ele>121.159</ele>
        <time>2018-12-29T01:41:35Z</time>
      </trkpt>
      <trkpt lat="36.726790" lon="-119.461880">
        <ele>121.093</ele>
        <time>2018-12-29T01:41:55Z</time>
      </trkpt>
      <trkpt lat="36.726400" lon="-119.461430">
        <ele>121.163</ele>
        <time>2018-12-29T01:42:15Z</time>
      </trkpt>
      <trkpt lat="36.726120" lon="-119.461100">
        <ele>121.239</ele>
        <time>2018-12-29T01:42:35Z</time>
      </trkpt>
      <trkpt lat="36.725890" lon="-119.460840">
        <ele>121.298</ele>
        <time>2018-12-29T01:42:55Z</time>
      </trkpt>
      <trkpt lat="36.725810" lon="-119.460750">
        <ele>121.142</ele>
        <time>2018-12-29T01:43:15Z</time>
      </trkpt>
      <trkpt lat="36.725730" lon="-119.460640">
        <ele>120.822</ele>
        <time>2018-12-29T01:43:35Z</time>
      </trkpt>
      <trkpt lat="36.725630" lon="-119.460490">
        <ele>120.014</ele>
        <time>2018-12-29T01:43:55Z</time>
      </trkpt>
      <trkpt lat="36.725550" lon="-119.460370">
        <ele>120.208</ele>
        <time>2018-12-29T01:44:15Z</time>
      </trkpt>
      <trkpt lat="36.725450" lon="-119.460200">
        <ele>121.097</ele>
        <time>2018-12-29T01:44:35Z</time>
      </trkpt>
      <trkpt lat="36.725360" lon="-119.460060">
        <ele>121.365</ele>
        <time>2018-12-29T01:44:55Z</time>
      </trkpt>
      <trkpt lat="36.724930" lon="-119.459310">
        <ele>121.140</ele>
        <time>2018-12-29T01:45:15Z</time>
      </trkpt>
      <trkpt lat="36.724890" lon="-119.459230">
        <ele>121.120</ele>
        <time>2018-12-29T01:45:35Z</time>
      </trkpt>
      <trkpt lat="36.724570" lon="-119.458690">
        <ele>121.284</ele>
        <time>2018-12-29T01:45:55Z</time>
      </trkpt>
      <trkpt lat="36.724350" lon="-119.458340">
        <ele>121.184</ele>
        <time>2018-12-29T01:46:15Z</time>
      </trkpt>
      <trkpt lat="36.724190" lon="-119.458070">
        <ele>121.230</ele>
        <time>2018-12-29T01:46:35Z</time>
      </trkpt>
      <trkpt lat="36.724110" lon="-119.457950">
        <ele>121.329</ele>
        <time>2018-12-29T01:46:55Z</time>
      </trkpt>
      <trkpt lat="36.724030" lon="-119.457840">
        <ele>121.414</ele>
        <time>2018-12-29T01:47:15Z</time>
      </trkpt>
      <trkpt lat="36.723970" lon="-119.457760">
        <ele>121.454</ele>
        <time>2018-12-29T01:47:35Z</time>
      </trkpt>
      <trkpt lat="36.723920" lon="-119.457710">
        <ele>121.409</ele>
        <time>2018-12-29T01:47:55Z</time>
      </trkpt>
      <trkpt lat="36.723840" lon="-119.457630">
        <ele>121.408</ele>
        <time>2018-12-29T01:48:15Z</time>
      </trkpt>
      <trkpt lat="36.723730" lon="-119.457550">
        <ele>121.534</ele>
        <time>2018-12-29T01:48:35Z</time>
      </trkpt>
      <trkpt lat="36.723660" lon="-119.457510">
        <ele>121.532</ele>
        <time>2018-12-29T01:48:55Z</time>
      </trkpt>
      <trkpt lat="36.723580" lon="-119.457460">
        <ele>121.527</ele>
        <time>2018-12-29T01:49:15Z</time>
      </trkpt>
      <trkpt lat="36.723490" lon="-119.457420">
        <ele>121.697</ele>
        <time>2018-12-29T01:49:35Z</time>
      </trkpt>
      <trkpt lat="36.723440" lon="-119.457400">
        <ele>121.691</ele>
        <time>2018-12-29T01:49:55Z</time>
      </trkpt>
      <trkpt lat="36.723400" lon="-119.457380">
        <ele>121.641</ele>
        <time>2018-12-29T01:50:15Z</time>
      </trkpt>
      <trkpt lat="36.723320" lon="-119.457360">
        <ele>121.617</ele>
        <time>2018-12-29T01:50:35Z</time>
      </trkpt>
      <trkpt lat="36.723240" lon="-119.457350">
        <ele>121.616</ele>
        <time>2018-12-29T01:50:55Z</time>
      </trkpt>
      <trkpt lat="36.723200" lon="-119.457340">
        <ele>121.637</ele>
        <time>2018-12-29T01:51:15Z</time>
      </trkpt>
      <trkpt lat="36.723100" lon="-119.457330">
        <ele>121.649</ele>
        <time>2018-12-29T01:51:35Z</time>
      </trkpt>
      <trkpt lat="36.723010" lon="-119.457330">
        <ele>121.613</ele>
        <time>2018-12-29T01:51:55Z</time>
      </trkpt>
      <trkpt lat="36.722900" lon="-119.457330">
        <ele>121.608</ele>
        <time>2018-12-29T01:52:15Z</time>
      </trkpt>
      <trkpt lat="36.722030" lon="-119.457340">
        <ele>121.226</ele>
        <time>2018-12-29T01:52:35Z</time>
      </trkpt>
      <trkpt lat="36.721180" lon="-119.457350">
        <ele>121.254</ele>
        <time>2018-12-29T01:52:55Z</time>
      </trkpt>
      <trkpt lat="36.720950" lon="-119.457350">
        <ele>121.289</ele>
        <time>2018-12-29T01:53:15Z</time>
      </trkpt>
      <trkpt lat="36.720790" lon="-119.457340">
        <ele>121.279</ele>
        <time>2018-12-29T01:53:35Z</time>
      </trkpt>
      <trkpt lat="36.720650" lon="-119.457340">
        <ele>121.213</ele>
        <time>2018-12-29T01:53:55Z</time>
      </trkpt>
      <trkpt lat="36.720160" lon="-119.457340">
        <ele>121.223</ele>
        <time>2018-12-29T01:54:15Z</time>
      </trkpt>
      <trkpt lat="36.720157" lon="-119.457340">
        <ele>121.259</ele>
        <time>2018-12-29T01:54:35Z</time>
      </trkpt>
      <trkpt lat="36.720150" lon="-119.456750">
        <ele>121.158</ele>
        <time>2018-12-29T01:54:55Z</time>
      </trkpt>
      <trkpt lat="36.720040" lon="-119.448390">
        <ele>121.594</ele>
        <time>2018-12-29T01:55:15Z</time>
      </trkpt>
      <trkpt lat="36.720040" lon="-119.448050">
        <ele>121.557</ele>
        <time>2018-12-29T01:55:35Z</time>
      </trkpt>
      <trkpt lat="36.720030" lon="-119.446590">
        <ele>121.622</ele>
        <time>2018-12-29T01:55:55Z</time>
      </trkpt>
      <trkpt lat="36.720010" lon="-119.445180">
        <ele>121.608</ele>
        <time>2018-12-29T01:56:15Z</time>
      </trkpt>
      <trkpt lat="36.720010" lon="-119.444500">
        <ele>121.712</ele>
        <time>2018-12-29T01:56:35Z</time>
      </trkpt>
      <trkpt lat="36.719980" lon="-119.443860">
        <ele>121.790</ele>
        <time>2018-12-29T01:56:55Z</time>
      </trkpt>
      <trkpt lat="36.719983" lon="-119.443863">
        <ele>121.745</ele>
        <time>2018-12-29T01:57:15Z</time>
      </trkpt>
      <trkpt lat="36.719820" lon="-119.443320">
        <ele>121.895</ele>
        <time>2018-12-29T01:57:35Z</time>
      </trkpt>
      <trkpt lat="36.719610" lon="-119.442550">
        <ele>122.149</ele>
        <time>2018-12-29T01:57:55Z</time>
      </trkpt>
      <trkpt lat="36.719100" lon="-119.440800">
        <ele>122.449</ele>
        <time>2018-12-29T01:58:15Z</time>
      </trkpt>
      <trkpt lat="36.718890" lon="-119.439960">
        <ele>122.585</ele>
        <time>2018-12-29T01:58:35Z</time>
      </trkpt>
      <trkpt lat="36.718750" lon="-119.439400">
        <ele>122.794</ele>
        <time>2018-12-29T01:58:55Z</time>
      </trkpt>
      <trkpt lat="36.718660" lon="-119.439040">
        <ele>122.729</ele>
        <time>2018-12-29T01:59:15Z</time>
      </trkpt>
      <trkpt lat="36.718580" lon="-119.438660">
        <ele>122.800</ele>
        <time>2018-12-29T01:59:35Z</time>
      </trkpt>
      <trkpt lat="36.718510" lon="-119.438280">
        <ele>123.120</ele>
        <time>2018-12-29T01:59:55Z</time>
      </trkpt>
      <trkpt lat="36.718460" lon="-119.437860">
        <ele>124.008</ele>
        <time>2018-12-29T02:00:15Z</time>
      </trkpt>
      <trkpt lat="36.718457" lon="-119.437856">
        <ele>123.945</ele>
        <time>2018-12-29T02:00:35Z</time>
      </trkpt>
      <trkpt lat="36.718340" lon="-119.437450">
        <ele>124.663</ele>
        <time>2018-12-29T02:00:55Z</time>
      </trkpt>
      <trkpt lat="36.718110" lon="-119.436700">
        <ele>127.178</ele>
        <time>2018-12-29T02:01:15Z</time>
      </trkpt>
      <trkpt lat="36.717950" lon="-119.436130">
        <ele>128.758</ele>
        <time>2018-12-29T02:01:35Z</time>
      </trkpt>
      <trkpt lat="36.717740" lon="-119.435340">
        <ele>129.232</ele>
        <time>2018-12-29T02:01:55Z</time>
      </trkpt>
      <trkpt lat="36.717620" lon="-119.434880">
        <ele>128.882</ele>
        <time>2018-12-29T02:02:15Z</time>
      </trkpt>
      <trkpt lat="36.717510" lon="-119.434410">
        <ele>132.088</ele>
        <time>2018-12-29T02:02:35Z</time>
      </trkpt>
      <trkpt lat="36.717440" lon="-119.434070">
        <ele>129.767</ele>
        <time>2018-12-29T02:02:55Z</time>
      </trkpt>
      <trkpt lat="36.717080" lon="-119.432370">
        <ele>128.739</ele>
        <time>2018-12-29T02:03:15Z</time>
      </trkpt>
      <trkpt lat="36.716900" lon="-119.431540">
        <ele>127.301</ele>
        <time>2018-12-29T02:03:35Z</time>
      </trkpt>
      <trkpt lat="36.716430" lon="-119.429290">
        <ele>133.121</ele>
        <time>2018-12-29T02:03:55Z</time>
      </trkpt>
      <trkpt lat="36.716140" lon="-119.427900">
        <ele>134.208</ele>
        <time>2018-12-29T02:04:15Z</time>
      </trkpt>
      <trkpt lat="36.715930" lon="-119.426910">
        <ele>135.486</ele>
        <time>2018-12-29T02:04:35Z</time>
      </trkpt>
      <trkpt lat="36.715680" lon="-119.425720">
        <ele>136.184</ele>
        <time>2018-12-29T02:04:55Z</time>
      </trkpt>
      <trkpt lat="36.715610" lon="-119.425390">
        <ele>136.679</ele>
        <time>2018-12-29T02:05:15Z</time>
      </trkpt>
      <trkpt lat="36.715520" lon="-119.424930">
        <ele>137.629</ele>
        <time>2018-12-29T02:05:35Z</time>
      </trkpt>
      <trkpt lat="36.715360" lon="-119.424190">
        <ele>138.973</ele>
        <time>2018-12-29T02:05:55Z</time>
      </trkpt>
      <trkpt lat="36.715210" lon="-119.423500">
        <ele>138.843</ele>
        <time>2018-12-29T02:06:15Z</time>
      </trkpt>
      <trkpt lat="36.715170" lon="-119.423270">
        <ele>138.919</ele>
        <time>2018-12-29T02:06:35Z</time>
      </trkpt>
      <trkpt lat="36.715120" lon="-119.422970">
        <ele>139.018</ele>
        <time>2018-12-29T02:06:55Z</time>
      </trkpt>
      <trkpt lat="36.715090" lon="-119.422780">
        <ele>139.166</ele>
        <time>2018-12-29T02:07:15Z</time>
      </trkpt>
      <trkpt lat="36.715060" lon="-119.422500">
        <ele>139.329</ele>
        <time>2018-12-29T02:07:35Z</time>
      </trkpt>
      <trkpt lat="36.715000" lon="-119.421800">
        <ele>139.221</ele>
        <time>2018-12-29T02:07:55Z</time>
      </trkpt>
      <trkpt lat="36.714780" lon="-119.419110">
        <ele>139.208</ele>
        <time>2018-12-29T02:08:15Z</time>
      </trkpt>
      <trkpt lat="36.714690" lon="-119.417960">
        <ele>139.289</ele>
        <time>2018-12-29T02:08:35Z</time>
      </trkpt>
      <trkpt lat="36.714620" lon="-119.417070">
        <ele>139.457</ele>
        <time>2018-12-29T02:08:55Z</time>
      </trkpt>
      <trkpt lat="36.714580" lon="-119.416590">
        <ele>139.782</ele>
        <time>2018-12-29T02:09:15Z</time>
      </trkpt>
      <trkpt lat="36.714500" lon="-119.415480">
        <ele>140.012</ele>
        <time>2018-12-29T02:09:35Z</time>
      </trkpt>
      <trkpt lat="36.714470" lon="-119.415170">
        <ele>140.186</ele>
        <time>2018-12-29T02:09:55Z</time>
      </trkpt>
      <trkpt lat="36.714450" lon="-119.414970">
        <ele>140.176</ele>
        <time>2018-12-29T02:10:15Z</time>
      </trkpt>
      <trkpt lat="36.714440" lon="-119.414860">
        <ele>140.142</ele>
        <time>2018-12-29T02:10:35Z</time>
      </trkpt>
      <trkpt lat="36.714420" lon="-119.414740">
        <ele>140.051</ele>
        <time>2018-12-29T02:10:55Z</time>
      </trkpt>
      <trkpt lat="36.714410" lon="-119.414650">
        <ele>140.028</ele>
        <time>2018-12-29T02:11:15Z</time>
      </trkpt>
      <trkpt lat="36.714390" lon="-119.414570">
        <ele>139.989</ele>
        <time>2018-12-29T02:11:35Z</time>
      </trkpt>
      <trkpt lat="36.714370" lon="-119.414470">
        <ele>139.917</ele>
        <time>2018-12-29T02:11:55Z</time>
      </trkpt>
      <trkpt lat="36.714350" lon="-119.414390">
        <ele>139.808</ele>
        <time>2018-12-29T02:12:15Z</time>
      </trkpt>
      <trkpt lat="36.714030" lon="-119.413280">
        <ele>139.815</ele>
        <time>2018-12-29T02:12:35Z</time>
      </trkpt>
      <trkpt lat="36.713990" lon="-119.413130">
        <ele>139.973</ele>
        <time>2018-12-29T02:12:55Z</time>
      </trkpt>
      <trkpt lat="36.713960" lon="-119.413030">
        <ele>139.988</ele>
        <time>2018-12-29T02:13:15Z</time>
      </trkpt>
      <trkpt lat="36.713950" lon="-119.412980">
        <ele>139.918</ele>
        <time>2018-12-29T02:13:35Z</time>
      </trkpt>
      <trkpt lat="36.713940" lon="-119.412930">
        <ele>139.982</ele>
        <time>2018-12-29T02:13:55Z</time>
      </trkpt>
      <trkpt lat="36.713920" lon="-119.412830">
        <ele>140.012</ele>
        <time>2018-12-29T02:14:15Z</time>
      </trkpt>
      <trkpt lat="36.713910" lon="-119.412730">
        <ele>140.198</ele>
        <time>2018-12-29T02:14:35Z</time>
      </trkpt>
      <trkpt lat="36.713890" lon="-119.412590">
        <ele>140.397</ele>
        <time>2018-12-29T02:14:55Z</time>
      </trkpt>
      <trkpt lat="36.713870" lon="-119.412430">
        <ele>140.587</ele>
        <time>2018-12-29T02:15:15Z</time>
      </trkpt>
      <trkpt lat="36.713860" lon="-119.412240">
        <ele>140.842</ele>
        <time>2018-12-29T02:15:35Z</time>
      </trkpt>
      <trkpt lat="36.713850" lon="-119.412070">
        <ele>141.226</ele>
        <time>2018-12-29T02:15:55Z</time>
      </trkpt>
      <trkpt lat="36.713850" lon="-119.411890">
        <ele>141.308</ele>
        <time>2018-12-29T02:16:15Z</time>
      </trkpt>
      <trkpt lat="36.713860" lon="-119.411730">
        <ele>141.411</ele>
        <time>2018-12-29T02:16:35Z</time>
      </trkpt>
      <trkpt lat="36.713870" lon="-119.411550">
        <ele>141.489</ele>
        <time>2018-12-29T02:16:55Z</time>
      </trkpt>
      <trkpt lat="36.713900" lon="-119.411320">
        <ele>141.524</ele>
        <time>2018-12-29T02:17:15Z</time>
      </trkpt>
      <trkpt lat="36.713950" lon="-119.411060">
        <ele>141.924</ele>
        <time>2018-12-29T02:17:35Z</time>
      </trkpt>
      <trkpt lat="36.713990" lon="-119.410880">
        <ele>142.398</ele>
        <time>2018-12-29T02:17:55Z</time>
      </trkpt>
      <trkpt lat="36.714030" lon="-119.410740">
        <ele>142.718</ele>
        <time>2018-12-29T02:18:15Z</time>
      </trkpt>
      <trkpt lat="36.714210" lon="-119.410190">
        <ele>143.734</ele>
        <time>2018-12-29T02:18:35Z</time>
      </trkpt>
      <trkpt lat="36.714330" lon="-119.409860">
        <ele>143.913</ele>
        <time>2018-12-29T02:18:55Z</time>
      </trkpt>
      <trkpt lat="36.714570" lon="-119.409200">
        <ele>144.434</ele>
        <time>2018-12-29T02:19:15Z</time>
      </trkpt>
      <trkpt lat="36.714710" lon="-119.408840">
        <ele>144.555</ele>
        <time>2018-12-29T02:19:35Z</time>
      </trkpt>
      <trkpt lat="36.715230" lon="-119.407640">
        <ele>144.810</ele>
        <time>2018-12-29T02:19:55Z</time>
      </trkpt>
      <trkpt lat="36.715580" lon="-119.406840">
        <ele>145.508</ele>
        <time>2018-12-29T02:20:15Z</time>
      </trkpt>
      <trkpt lat="36.715940" lon="-119.405980">
        <ele>145.996</ele>
        <time>2018-12-29T02:20:35Z</time>
      </trkpt>
      <trkpt lat="36.716120" lon="-119.405560">
        <ele>146.124</ele>
        <time>2018-12-29T02:20:55Z</time>
      </trkpt>
      <trkpt lat="36.716300" lon="-119.405150">
        <ele>146.329</ele>
        <time>2018-12-29T02:21:15Z</time>
      </trkpt>
      <trkpt lat="36.716470" lon="-119.404770">
        <ele>146.499</ele>
        <time>2018-12-29T02:21:35Z</time>
      </trkpt>
      <trkpt lat="36.716600" lon="-119.404460">
        <ele>146.733</ele>
        <time>2018-12-29T02:21:55Z</time>
      </trkpt>
      <trkpt lat="36.716730" lon="-119.404200">
        <ele>147.163</ele>
        <time>2018-12-29T02:22:15Z</time>
      </trkpt>
      <trkpt lat="36.716860" lon="-119.403940">
        <ele>147.659</ele>
        <time>2018-12-29T02:22:35Z</time>
      </trkpt>
      <trkpt lat="36.717030" lon="-119.403610">
        <ele>147.748</ele>
        <time>2018-12-29T02:22:55Z</time>
      </trkpt>
      <trkpt lat="36.717220" lon="-119.403280">
        <ele>147.767</ele>
        <time>2018-12-29T02:23:15Z</time>
      </trkpt>
      <trkpt lat="36.717450" lon="-119.402870">
        <ele>147.881</ele>
        <time>2018-12-29T02:23:35Z</time>
      </trkpt>
      <trkpt lat="36.717740" lon="-119.402320">
        <ele>147.919</ele>
        <time>2018-12-29T02:23:55Z</time>
      </trkpt>
      <trkpt lat="36.718130" lon="-119.401600">
        <ele>148.408</ele>
        <time>2018-12-29T02:24:15Z</time>
      </trkpt>
      <trkpt lat="36.718370" lon="-119.401170">
        <ele>149.489</ele>
        <time>2018-12-29T02:24:35Z</time>
      </trkpt>
      <trkpt lat="36.718560" lon="-119.400820">
        <ele>149.167</ele>
        <time>2018-12-29T02:24:55Z</time>
      </trkpt>
      <trkpt lat="36.718650" lon="-119.400640">
        <ele>149.092</ele>
        <time>2018-12-29T02:25:15Z</time>
      </trkpt>
      <trkpt lat="36.718740" lon="-119.400440">
        <ele>148.922</ele>
        <time>2018-12-29T02:25:35Z</time>
      </trkpt>
      <trkpt lat="36.718840" lon="-119.400210">
        <ele>148.886</ele>
        <time>2018-12-29T02:25:55Z</time>
      </trkpt>
      <trkpt lat="36.718960" lon="-119.399950">
        <ele>148.846</ele>
        <time>2018-12-29T02:26:15Z</time>
      </trkpt>
      <trkpt lat="36.719100" lon="-119.399630">
        <ele>148.552</ele>
        <time>2018-12-29T02:26:35Z</time>
      </trkpt>
      <trkpt lat="36.719420" lon="-119.398880">
        <ele>148.211</ele>
        <time>2018-12-29T02:26:55Z</time>
      </trkpt>
      <trkpt lat="36.719670" lon="-119.398300">
        <ele>148.094</ele>
        <time>2018-12-29T02:27:15Z</time>
      </trkpt>
      <trkpt lat="36.719770" lon="-119.398060">
        <ele>147.957</ele>
        <time>2018-12-29T02:27:35Z</time>
      </trkpt>
      <trkpt lat="36.719820" lon="-119.397920">
        <ele>147.922</ele>
        <time>2018-12-29T02:27:55Z</time>
      </trkpt>
      <trkpt lat="36.719860" lon="-119.397830">
        <ele>147.908</ele>
        <time>2018-12-29T02:28:15Z</time>
      </trkpt>
      <trkpt lat="36.719880" lon="-119.397740">
        <ele>147.862</ele>
        <time>2018-12-29T02:28:35Z</time>
      </trkpt>
      <trkpt lat="36.719900" lon="-119.397650">
        <ele>147.740</ele>
        <time>2018-12-29T02:28:55Z</time>
      </trkpt>
      <trkpt lat="36.719920" lon="-119.397550">
        <ele>147.725</ele>
        <time>2018-12-29T02:29:15Z</time>
      </trkpt>
      <trkpt lat="36.719930" lon="-119.397450">
        <ele>147.625</ele>
        <time>2018-12-29T02:29:35Z</time>
      </trkpt>
      <trkpt lat="36.719930" lon="-119.397340">
        <ele>147.519</ele>
        <time>2018-12-29T02:29:55Z</time>
      </trkpt>
      <trkpt lat="36.719940" lon="-119.397240">
        <ele>147.489</ele>
        <time>2018-12-29T02:30:15Z</time>
      </trkpt>
      <trkpt lat="36.719930" lon="-119.396900">
        <ele>146.875</ele>
        <time>2018-12-29T02:30:35Z</time>
      </trkpt>
      <trkpt lat="36.719910" lon="-119.395590">
        <ele>145.684</ele>
        <time>2018-12-29T02:30:55Z</time>
      </trkpt>
      <trkpt lat="36.719890" lon="-119.394460">
        <ele>144.025</ele>
        <time>2018-12-29T02:31:15Z</time>
      </trkpt>
      <trkpt lat="36.719850" lon="-119.393120">
        <ele>143.526</ele>
        <time>2018-12-29T02:31:35Z</time>
      </trkpt>
      <trkpt lat="36.719820" lon="-119.392110">
        <ele>142.908</ele>
        <time>2018-12-29T02:31:55Z</time>
      </trkpt>
      <trkpt lat="36.719790" lon="-119.391230">
        <ele>142.108</ele>
        <time>2018-12-29T02:32:15Z</time>
      </trkpt>
      <trkpt lat="36.719770" lon="-119.390510">
        <ele>142.435</ele>
        <time>2018-12-29T02:32:35Z</time>
      </trkpt>
      <trkpt lat="36.719750" lon="-119.389870">
        <ele>142.863</ele>
        <time>2018-12-29T02:32:55Z</time>
      </trkpt>
      <trkpt lat="36.719730" lon="-119.389010">
        <ele>141.838</ele>
        <time>2018-12-29T02:33:15Z</time>
      </trkpt>
      <trkpt lat="36.719720" lon="-119.388360">
        <ele>141.658</ele>
        <time>2018-12-29T02:33:35Z</time>
      </trkpt>
      <trkpt lat="36.719700" lon="-119.387910">
        <ele>142.012</ele>
        <time>2018-12-29T02:33:55Z</time>
      </trkpt>
      <trkpt lat="36.719690" lon="-119.387340">
        <ele>144.512</ele>
        <time>2018-12-29T02:34:15Z</time>
      </trkpt>
      <trkpt lat="36.719670" lon="-119.386700">
        <ele>145.828</ele>
        <time>2018-12-29T02:34:35Z</time>
      </trkpt>
      <trkpt lat="36.719660" lon="-119.386270">
        <ele>144.217</ele>
        <time>2018-12-29T02:34:55Z</time>
      </trkpt>
      <trkpt lat="36.719650" lon="-119.385750">
        <ele>142.694</ele>
        <time>2018-12-29T02:35:15Z</time>
      </trkpt>
      <trkpt lat="36.719640" lon="-119.385320">
        <ele>142.357</ele>
        <time>2018-12-29T02:35:35Z</time>
      </trkpt>
      <trkpt lat="36.719630" lon="-119.384830">
        <ele>142.022</ele>
        <time>2018-12-29T02:35:55Z</time>
      </trkpt>
      <trkpt lat="36.719610" lon="-119.383400">
        <ele>142.208</ele>
        <time>2018-12-29T02:36:15Z</time>
      </trkpt>
      <trkpt lat="36.719600" lon="-119.382340">
        <ele>142.582</ele>
        <time>2018-12-29T02:36:35Z</time>
      </trkpt>
      <trkpt lat="36.719590" lon="-119.381710">
        <ele>142.940</ele>
        <time>2018-12-29T02:36:55Z</time>
      </trkpt>
      <trkpt lat="36.719590" lon="-119.381340">
        <ele>143.235</ele>
        <time>2018-12-29T02:37:15Z</time>
      </trkpt>
      <trkpt lat="36.719600" lon="-119.380720">
        <ele>143.675</ele>
        <time>2018-12-29T02:37:35Z</time>
      </trkpt>
      <trkpt lat="36.719600" lon="-119.380320">
        <ele>143.549</ele>
        <time>2018-12-29T02:37:55Z</time>
      </trkpt>
      <trkpt lat="36.719580" lon="-119.379700">
        <ele>141.239</ele>
        <time>2018-12-29T02:38:15Z</time>
      </trkpt>
      <trkpt lat="36.719570" lon="-119.378670">
        <ele>139.645</ele>
        <time>2018-12-29T02:38:35Z</time>
      </trkpt>
      <trkpt lat="36.719550" lon="-119.378180">
        <ele>139.314</ele>
        <time>2018-12-29T02:38:55Z</time>
      </trkpt>
      <trkpt lat="36.719530" lon="-119.377700">
        <ele>139.298</ele>
        <time>2018-12-29T02:39:15Z</time>
      </trkpt>
      <trkpt lat="36.719520" lon="-119.377410">
        <ele>139.415</ele>
        <time>2018-12-29T02:39:35Z</time>
      </trkpt>
      <trkpt lat="36.719520" lon="-119.377040">
        <ele>139.526</ele>
        <time>2018-12-29T02:39:55Z</time>
      </trkpt>
      <trkpt lat="36.719510" lon="-119.376090">
        <ele>141.308</ele>
        <time>2018-12-29T02:40:15Z</time>
      </trkpt>
      <trkpt lat="36.719440" lon="-119.371800">
        <ele>143.342</ele>
        <time>2018-12-29T02:40:35Z</time>
      </trkpt>
      <trkpt lat="36.719420" lon="-119.370790">
        <ele>143.650</ele>
        <time>2018-12-29T02:40:55Z</time>
      </trkpt>
      <trkpt lat="36.719400" lon="-119.370070">
        <ele>143.945</ele>
        <time>2018-12-29T02:41:15Z</time>
      </trkpt>
      <trkpt lat="36.719390" lon="-119.369350">
        <ele>144.365</ele>
        <time>2018-12-29T02:41:35Z</time>
      </trkpt>
      <trkpt lat="36.719380" lon="-119.368840">
        <ele>144.629</ele>
        <time>2018-12-29T02:41:55Z</time>
      </trkpt>
      <trkpt lat="36.719370" lon="-119.368280">
        <ele>145.169</ele>
        <time>2018-12-29T02:42:15Z</time>
      </trkpt>
      <trkpt lat="36.719370" lon="-119.368030">
        <ele>145.495</ele>
        <time>2018-12-29T02:42:35Z</time>
      </trkpt>
      <trkpt lat="36.719360" lon="-119.367810">
        <ele>145.684</ele>
        <time>2018-12-29T02:42:55Z</time>
      </trkpt>
      <trkpt lat="36.719350" lon="-119.367670">
        <ele>145.792</ele>
        <time>2018-12-29T02:43:15Z</time>
      </trkpt>
      <trkpt lat="36.719340" lon="-119.367500">
        <ele>145.873</ele>
        <time>2018-12-29T02:43:35Z</time>
      </trkpt>
      <trkpt lat="36.719320" lon="-119.367310">
        <ele>145.820</ele>
        <time>2018-12-29T02:43:55Z</time>
      </trkpt>
      <trkpt lat="36.719290" lon="-119.367060">
        <ele>145.808</ele>
        <time>2018-12-29T02:44:15Z</time>
      </trkpt>
      <trkpt lat="36.719260" lon="-119.366890">
        <ele>145.762</ele>
        <time>2018-12-29T02:44:35Z</time>
      </trkpt>
      <trkpt lat="36.719230" lon="-119.366700">
        <ele>145.670</ele>
        <time>2018-12-29T02:44:55Z</time>
      </trkpt>
      <trkpt lat="36.719200" lon="-119.366540">
        <ele>145.525</ele>
        <time>2018-12-29T02:45:15Z</time>
      </trkpt>
      <trkpt lat="36.719140" lon="-119.366290">
        <ele>145.575</ele>
        <time>2018-12-29T02:45:35Z</time>
      </trkpt>
      <trkpt lat="36.719110" lon="-119.366140">
        <ele>145.599</ele>
        <time>2018-12-29T02:45:55Z</time>
      </trkpt>
      <trkpt lat="36.719070" lon="-119.366010">
        <ele>145.619</ele>
        <time>2018-12-29T02:46:15Z</time>
      </trkpt>
      <trkpt lat="36.719000" lon="-119.365770">
        <ele>145.885</ele>
        <time>2018-12-29T02:46:35Z</time>
      </trkpt>
      <trkpt lat="36.718910" lon="-119.365520">
        <ele>146.154</ele>
        <time>2018-12-29T02:46:55Z</time>
      </trkpt>
      <trkpt lat="36.718850" lon="-119.365360">
        <ele>146.237</ele>
        <time>2018-12-29T02:47:15Z</time>
      </trkpt>
      <trkpt lat="36.718780" lon="-119.365170">
        <ele>146.149</ele>
        <time>2018-12-29T02:47:35Z</time>
      </trkpt>
      <trkpt lat="36.718690" lon="-119.364960">
        <ele>145.713</ele>
        <time>2018-12-29T02:47:55Z</time>
      </trkpt>
      <trkpt lat="36.718590" lon="-119.364750">
        <ele>145.508</ele>
        <time>2018-12-29T02:48:15Z</time>
      </trkpt>
      <trkpt lat="36.718470" lon="-119.364500">
        <ele>145.566</ele>
        <time>2018-12-29T02:48:35Z</time>
      </trkpt>
      <trkpt lat="36.718370" lon="-119.364320">
        <ele>145.454</ele>
        <time>2018-12-29T02:48:55Z</time>
      </trkpt>
      <trkpt lat="36.718300" lon="-119.364200">
        <ele>145.339</ele>
        <time>2018-12-29T02:49:15Z</time>
      </trkpt>
      <trkpt lat="36.718190" lon="-119.364010">
        <ele>145.229</ele>
        <time>2018-12-29T02:49:35Z</time>
      </trkpt>
      <trkpt lat="36.718090" lon="-119.363860">
        <ele>145.313</ele>
        <time>2018-12-29T02:49:55Z</time>
      </trkpt>
      <trkpt lat="36.717940" lon="-119.363660">
        <ele>145.693</ele>
        <time>2018-12-29T02:50:15Z</time>
      </trkpt>
      <trkpt lat="36.717810" lon="-119.363480">
        <ele>145.939</ele>
        <time>2018-12-29T02:50:35Z</time>
      </trkpt>
      <trkpt lat="36.717650" lon="-119.363290">
        <ele>146.188</ele>
        <time>2018-12-29T02:50:55Z</time>
      </trkpt>
      <trkpt lat="36.717380" lon="-119.362950">
        <ele>146.447</ele>
        <time>2018-12-29T02:51:15Z</time>
      </trkpt>
      <trkpt lat="36.717110" lon="-119.362610">
        <ele>146.629</ele>
        <time>2018-12-29T02:51:35Z</time>
      </trkpt>
      <trkpt lat="36.716970" lon="-119.362430">
        <ele>146.621</ele>
        <time>2018-12-29T02:51:55Z</time>
      </trkpt>
      <trkpt lat="36.716810" lon="-119.362200">
        <ele>146.708</ele>
        <time>2018-12-29T02:52:15Z</time>
      </trkpt>
      <trkpt lat="36.716650" lon="-119.361940">
        <ele>146.967</ele>
        <time>2018-12-29T02:52:35Z</time>
      </trkpt>
      <trkpt lat="36.716550" lon="-119.361760">
        <ele>146.995</ele>
        <time>2018-12-29T02:52:55Z</time>
      </trkpt>
      <trkpt lat="36.716460" lon="-119.361610">
        <ele>146.970</ele>
        <time>2018-12-29T02:53:15Z</time>
      </trkpt>
      <trkpt lat="36.716370" lon="-119.361420">
        <ele>147.270</ele>
        <time>2018-12-29T02:53:35Z</time>
      </trkpt>
      <trkpt lat="36.716280" lon="-119.361250">
        <ele>147.244</ele>
        <time>2018-12-29T02:53:55Z</time>
      </trkpt>
      <trkpt lat="36.716190" lon="-119.361030">
        <ele>146.994</ele>
        <time>2018-12-29T02:54:15Z</time>
      </trkpt>
      <trkpt lat="36.716120" lon="-119.360860">
        <ele>146.890</ele>
        <time>2018-12-29T02:54:35Z</time>
      </trkpt>
      <trkpt lat="36.715970" lon="-119.360430">
        <ele>146.799</ele>
        <time>2018-12-29T02:54:55Z</time>
      </trkpt>
      <trkpt lat="36.715870" lon="-119.360100">
        <ele>146.886</ele>
        <time>2018-12-29T02:55:15Z</time>
      </trkpt>
      <trkpt lat="36.715800" lon="-119.359870">
        <ele>147.060</ele>
        <time>2018-12-29T02:55:35Z</time>
      </trkpt>
      <trkpt lat="36.715750" lon="-119.359610">
        <ele>147.326</ele>
        <time>2018-12-29T02:55:55Z</time>
      </trkpt>
      <trkpt lat="36.715690" lon="-119.359350">
        <ele>147.408</ele>
        <time>2018-12-29T02:56:15Z</time>
      </trkpt>
      <trkpt lat="36.715670" lon="-119.359250">
        <ele>147.571</ele>
        <time>2018-12-29T02:56:35Z</time>
      </trkpt>
      <trkpt lat="36.715650" lon="-119.359080">
        <ele>147.639</ele>
        <time>2018-12-29T02:56:55Z</time>
      </trkpt>
      <trkpt lat="36.715630" lon="-119.358920">
        <ele>147.624</ele>
        <time>2018-12-29T02:57:15Z</time>
      </trkpt>
      <trkpt lat="36.715610" lon="-119.358700">
        <ele>147.774</ele>
        <time>2018-12-29T02:57:35Z</time>
      </trkpt>
      <trkpt lat="36.715590" lon="-119.358480">
        <ele>147.748</ele>
        <time>2018-12-29T02:57:55Z</time>
      </trkpt>
      <trkpt lat="36.715570" lon="-119.358170">
        <ele>147.758</ele>
        <time>2018-12-29T02:58:15Z</time>
      </trkpt>
      <trkpt lat="36.715530" lon="-119.356960">
        <ele>148.154</ele>
        <time>2018-12-29T02:58:35Z</time>
      </trkpt>
      <trkpt lat="36.715480" lon="-119.355210">
        <ele>150.953</ele>
        <time>2018-12-29T02:58:55Z</time>
      </trkpt>
      <trkpt lat="36.715330" lon="-119.349020">
        <ele>158.135</ele>
        <time>2018-12-29T02:59:15Z</time>
      </trkpt>
      <trkpt lat="36.715260" lon="-119.346260">
        <ele>169.286</ele>
        <time>2018-12-29T02:59:35Z</time>
      </trkpt>
      <trkpt lat="36.715240" lon="-119.345260">
        <ele>176.314</ele>
        <time>2018-12-29T02:59:55Z</time>
      </trkpt>
      <trkpt lat="36.715220" lon="-119.344400">
        <ele>176.608</ele>
        <time>2018-12-29T03:00:15Z</time>
      </trkpt>
      <trkpt lat="36.715200" lon="-119.343550">
        <ele>177.656</ele>
        <time>2018-12-29T03:00:35Z</time>
      </trkpt>
      <trkpt lat="36.715180" lon="-119.342940">
        <ele>177.544</ele>
        <time>2018-12-29T03:00:55Z</time>
      </trkpt>
      <trkpt lat="36.715160" lon="-119.342230">
        <ele>177.689</ele>
        <time>2018-12-29T03:01:15Z</time>
      </trkpt>
      <trkpt lat="36.715150" lon="-119.341620">
        <ele>178.689</ele>
        <time>2018-12-29T03:01:35Z</time>
      </trkpt>
      <trkpt lat="36.715130" lon="-119.341020">
        <ele>182.783</ele>
        <time>2018-12-29T03:01:55Z</time>
      </trkpt>
      <trkpt lat="36.715120" lon="-119.340650">
        <ele>182.993</ele>
        <time>2018-12-29T03:02:15Z</time>
      </trkpt>
      <trkpt lat="36.715120" lon="-119.340380">
        <ele>182.529</ele>
        <time>2018-12-29T03:02:35Z</time>
      </trkpt>
      <trkpt lat="36.715120" lon="-119.340170">
        <ele>182.188</ele>
        <time>2018-12-29T03:02:55Z</time>
      </trkpt>
      <trkpt lat="36.715140" lon="-119.339940">
        <ele>180.836</ele>
        <time>2018-12-29T03:03:15Z</time>
      </trkpt>
      <trkpt lat="36.715160" lon="-119.339700">
        <ele>179.717</ele>
        <time>2018-12-29T03:03:35Z</time>
      </trkpt>
      <trkpt lat="36.715200" lon="-119.339440">
        <ele>180.318</ele>
        <time>2018-12-29T03:03:55Z</time>
      </trkpt>
      <trkpt lat="36.715230" lon="-119.339230">
        <ele>181.808</ele>
        <time>2018-12-29T03:04:15Z</time>
      </trkpt>
      <trkpt lat="36.715280" lon="-119.339000">
        <ele>183.096</ele>
        <time>2018-12-29T03:04:35Z</time>
      </trkpt>
      <trkpt lat="36.715580" lon="-119.337590">
        <ele>185.614</ele>
        <time>2018-12-29T03:04:55Z</time>
      </trkpt>
      <trkpt lat="36.715700" lon="-119.337080">
        <ele>186.149</ele>
        <time>2018-12-29T03:05:15Z</time>
      </trkpt>
      <trkpt lat="36.715800" lon="-119.336580">
        <ele>186.989</ele>
        <time>2018-12-29T03:05:35Z</time>
      </trkpt>
      <trkpt lat="36.715870" lon="-119.336320">
        <ele>187.633</ele>
        <time>2018-12-29T03:05:55Z</time>
      </trkpt>
      <trkpt lat="36.715920" lon="-119.336140">
        <ele>188.113</ele>
        <time>2018-12-29T03:06:15Z</time>
      </trkpt>
      <trkpt lat="36.715970" lon="-119.336010">
        <ele>188.419</ele>
        <time>2018-12-29T03:06:35Z</time>
      </trkpt>
      <trkpt lat="36.716030" lon="-119.335860">
        <ele>191.228</ele>
        <time>2018-12-29T03:06:55Z</time>
      </trkpt>
      <trkpt lat="36.716080" lon="-119.335740">
        <ele>193.218</ele>
        <time>2018-12-29T03:07:15Z</time>
      </trkpt>
      <trkpt lat="36.716130" lon="-119.335630">
        <ele>194.198</ele>
        <time>2018-12-29T03:07:35Z</time>
      </trkpt>
      <trkpt lat="36.716180" lon="-119.335540">
        <ele>194.317</ele>
        <time>2018-12-29T03:07:55Z</time>
      </trkpt>
      <trkpt lat="36.716230" lon="-119.335470">
        <ele>194.208</ele>
        <time>2018-12-29T03:08:15Z</time>
      </trkpt>
      <trkpt lat="36.716290" lon="-119.335360">
        <ele>193.644</ele>
        <time>2018-12-29T03:08:35Z</time>
      </trkpt>
      <trkpt lat="36.716530" lon="-119.335020">
        <ele>193.312</ele>
        <time>2018-12-29T03:08:55Z</time>
      </trkpt>
      <trkpt lat="36.716800" lon="-119.334600">
        <ele>195.377</ele>
        <time>2018-12-29T03:09:15Z</time>
      </trkpt>
      <trkpt lat="36.717150" lon="-119.334080">
        <ele>200.737</ele>
        <time>2018-12-29T03:09:35Z</time>
      </trkpt>
      <trkpt lat="36.717360" lon="-119.333750">
        <ele>200.111</ele>
        <time>2018-12-29T03:09:55Z</time>
      </trkpt>
      <trkpt lat="36.717430" lon="-119.333630">
        <ele>202.271</ele>
        <time>2018-12-29T03:10:15Z</time>
      </trkpt>
      <trkpt lat="36.717490" lon="-119.333520">
        <ele>202.997</ele>
        <time>2018-12-29T03:10:35Z</time>
      </trkpt>
      <trkpt lat="36.717550" lon="-119.333400">
        <ele>203.216</ele>
        <time>2018-12-29T03:10:55Z</time>
      </trkpt>
      <trkpt lat="36.717630" lon="-119.333250">
        <ele>204.187</ele>
        <time>2018-12-29T03:11:15Z</time>
      </trkpt>
      <trkpt lat="36.717690" lon="-119.333090">
        <ele>204.842</ele>
        <time>2018-12-29T03:11:35Z</time>
      </trkpt>
      <trkpt lat="36.717760" lon="-119.332910">
        <ele>205.126</ele>
        <time>2018-12-29T03:11:55Z</time>
      </trkpt>
      <trkpt lat="36.717820" lon="-119.332720">
        <ele>205.108</ele>
        <time>2018-12-29T03:12:15Z</time>
      </trkpt>
      <trkpt lat="36.717890" lon="-119.332450">
        <ele>208.221</ele>
        <time>2018-12-29T03:12:35Z</time>
      </trkpt>
      <trkpt lat="36.718310" lon="-119.330780">
        <ele>220.729</ele>
        <time>2018-12-29T03:12:55Z</time>
      </trkpt>
      <trkpt lat="36.718430" lon="-119.330290">
        <ele>219.834</ele>
        <time>2018-12-29T03:13:15Z</time>
      </trkpt>
      <trkpt lat="36.718480" lon="-119.330080">
        <ele>222.634</ele>
        <time>2018-12-29T03:13:35Z</time>
      </trkpt>
      <trkpt lat="36.718520" lon="-119.329890">
        <ele>223.618</ele>
        <time>2018-12-29T03:13:55Z</time>
      </trkpt>
      <trkpt lat="36.718540" lon="-119.329750">
        <ele>224.288</ele>
        <time>2018-12-29T03:14:15Z</time>
      </trkpt>
      <trkpt lat="36.718560" lon="-119.329640">
        <ele>225.064</ele>
        <time>2018-12-29T03:14:35Z</time>
      </trkpt>
      <trkpt lat="36.718570" lon="-119.329540">
        <ele>225.363</ele>
        <time>2018-12-29T03:14:55Z</time>
      </trkpt>
      <trkpt lat="36.718580" lon="-119.329400">
        <ele>225.467</ele>
        <time>2018-12-29T03:15:15Z</time>
      </trkpt>
      <trkpt lat="36.718580" lon="-119.329280">
        <ele>225.281</ele>
        <time>2018-12-29T03:15:35Z</time>
      </trkpt>
      <trkpt lat="36.718580" lon="-119.329120">
        <ele>225.819</ele>
        <time>2018-12-29T03:15:55Z</time>
      </trkpt>
      <trkpt lat="36.718570" lon="-119.328980">
        <ele>226.308</ele>
        <time>2018-12-29T03:16:15Z</time>
      </trkpt>
      <trkpt lat="36.718550" lon="-119.328780">
        <ele>228.229</ele>
        <time>2018-12-29T03:16:35Z</time>
      </trkpt>
      <trkpt lat="36.718500" lon="-119.328440">
        <ele>229.317</ele>
        <time>2018-12-29T03:16:55Z</time>
      </trkpt>
      <trkpt lat="36.718430" lon="-119.328050">
        <ele>233.532</ele>
        <time>2018-12-29T03:17:15Z</time>
      </trkpt>
      <trkpt lat="36.718380" lon="-119.327770">
        <ele>236.612</ele>
        <time>2018-12-29T03:17:35Z</time>
      </trkpt>
      <trkpt lat="36.718350" lon="-119.327550">
        <ele>237.726</ele>
        <time>2018-12-29T03:17:55Z</time>
      </trkpt>
      <trkpt lat="36.718340" lon="-119.327350">
        <ele>239.046</ele>
        <time>2018-12-29T03:18:15Z</time>
      </trkpt>
      <trkpt lat="36.718330" lon="-119.327110">
        <ele>240.982</ele>
        <time>2018-12-29T03:18:35Z</time>
      </trkpt>
      <trkpt lat="36.718340" lon="-119.326940">
        <ele>242.031</ele>
        <time>2018-12-29T03:18:55Z</time>
      </trkpt>
      <trkpt lat="36.718360" lon="-119.326710">
        <ele>242.788</ele>
        <time>2018-12-29T03:19:15Z</time>
      </trkpt>
      <trkpt lat="36.718400" lon="-119.326500">
        <ele>242.424</ele>
        <time>2018-12-29T03:19:35Z</time>
      </trkpt>
      <trkpt lat="36.718460" lon="-119.326250">
        <ele>242.526</ele>
        <time>2018-12-29T03:19:55Z</time>
      </trkpt>
      <trkpt lat="36.718580" lon="-119.325860">
        <ele>243.608</ele>
        <time>2018-12-29T03:20:15Z</time>
      </trkpt>
      <trkpt lat="36.718760" lon="-119.325290">
        <ele>245.931</ele>
        <time>2018-12-29T03:20:35Z</time>
      </trkpt>
      <trkpt lat="36.718860" lon="-119.324970">
        <ele>249.689</ele>
        <time>2018-12-29T03:20:55Z</time>
      </trkpt>
      <trkpt lat="36.718910" lon="-119.324780">
        <ele>252.264</ele>
        <time>2018-12-29T03:21:15Z</time>
      </trkpt>
      <trkpt lat="36.718950" lon="-119.324630">
        <ele>255.144</ele>
        <time>2018-12-29T03:21:35Z</time>
      </trkpt>
      <trkpt lat="36.718970" lon="-119.324500">
        <ele>255.718</ele>
        <time>2018-12-29T03:21:55Z</time>
      </trkpt>
      <trkpt lat="36.718990" lon="-119.324350">
        <ele>255.228</ele>
        <time>2018-12-29T03:22:15Z</time>
      </trkpt>
      <trkpt lat="36.719010" lon="-119.324220">
        <ele>255.124</ele>
        <time>2018-12-29T03:22:35Z</time>
      </trkpt>
      <trkpt lat="36.719020" lon="-119.324110">
        <ele>255.163</ele>
        <time>2018-12-29T03:22:55Z</time>
      </trkpt>
      <trkpt lat="36.719040" lon="-119.323960">
        <ele>255.937</ele>
        <time>2018-12-29T03:23:15Z</time>
      </trkpt>
      <trkpt lat="36.719040" lon="-119.323810">
        <ele>255.949</ele>
        <time>2018-12-29T03:23:35Z</time>
      </trkpt>
      <trkpt lat="36.719040" lon="-119.323590">
        <ele>257.513</ele>
        <time>2018-12-29T03:23:55Z</time>
      </trkpt>
      <trkpt lat="36.719020" lon="-119.323400">
        <ele>258.308</ele>
        <time>2018-12-29T03:24:15Z</time>
      </trkpt>
      <trkpt lat="36.719010" lon="-119.323250">
        <ele>258.296</ele>
        <time>2018-12-29T03:24:35Z</time>
      </trkpt>
      <trkpt lat="36.718980" lon="-119.323080">
        <ele>258.354</ele>
        <time>2018-12-29T03:24:55Z</time>
      </trkpt>
      <trkpt lat="36.718950" lon="-119.322870">
        <ele>260.019</ele>
        <time>2018-12-29T03:25:15Z</time>
      </trkpt>
      <trkpt lat="36.718840" lon="-119.322200">
        <ele>267.719</ele>
        <time>2018-12-29T03:25:35Z</time>
      </trkpt>
      <trkpt lat="36.718750" lon="-119.321650">
        <ele>267.533</ele>
        <time>2018-12-29T03:25:55Z</time>
      </trkpt>
      <trkpt lat="36.718700" lon="-119.321360">
        <ele>267.413</ele>
        <time>2018-12-29T03:26:15Z</time>
      </trkpt>
      <trkpt lat="36.718680" lon="-119.321150">
        <ele>267.619</ele>
        <time>2018-12-29T03:26:35Z</time>
      </trkpt>
      <trkpt lat="36.718670" lon="-119.320990">
        <ele>268.248</ele>
        <time>2018-12-29T03:26:55Z</time>
      </trkpt>
      <trkpt lat="36.718660" lon="-119.320860">
        <ele>267.544</ele>
        <time>2018-12-29T03:27:15Z</time>
      </trkpt>
      <trkpt lat="36.718660" lon="-119.320700">
        <ele>266.605</ele>
        <time>2018-12-29T03:27:35Z</time>
      </trkpt>
      <trkpt lat="36.718670" lon="-119.320510">
        <ele>268.315</ele>
        <time>2018-12-29T03:27:55Z</time>
      </trkpt>
      <trkpt lat="36.718680" lon="-119.320310">
        <ele>270.008</ele>
        <time>2018-12-29T03:28:15Z</time>
      </trkpt>
      <trkpt lat="36.718710" lon="-119.320100">
        <ele>272.687</ele>
        <time>2018-12-29T03:28:35Z</time>
      </trkpt>
      <trkpt lat="36.718740" lon="-119.319900">
        <ele>276.335</ele>
        <time>2018-12-29T03:28:55Z</time>
      </trkpt>
      <trkpt lat="36.718780" lon="-119.319720">
        <ele>279.250</ele>
        <time>2018-12-29T03:29:15Z</time>
      </trkpt>
      <trkpt lat="36.718830" lon="-119.319510">
        <ele>281.970</ele>
        <time>2018-12-29T03:29:35Z</time>
      </trkpt>
      <trkpt lat="36.718890" lon="-119.319300">
        <ele>281.464</ele>
        <time>2018-12-29T03:29:55Z</time>
      </trkpt>
      <trkpt lat="36.718960" lon="-119.319110">
        <ele>281.774</ele>
        <time>2018-12-29T03:30:15Z</time>
      </trkpt>
      <trkpt lat="36.719030" lon="-119.318930">
        <ele>282.470</ele>
        <time>2018-12-29T03:30:35Z</time>
      </trkpt>
      <trkpt lat="36.719120" lon="-119.318760">
        <ele>286.589</ele>
        <time>2018-12-29T03:30:55Z</time>
      </trkpt>
      <trkpt lat="36.719240" lon="-119.318540">
        <ele>285.921</ele>
        <time>2018-12-29T03:31:15Z</time>
      </trkpt>
      <trkpt lat="36.719370" lon="-119.318300">
        <ele>287.341</ele>
        <time>2018-12-29T03:31:35Z</time>
      </trkpt>
      <trkpt lat="36.719500" lon="-119.318060">
        <ele>288.205</ele>
        <time>2018-12-29T03:31:55Z</time>
      </trkpt>
      <trkpt lat="36.719600" lon="-119.317870">
        <ele>290.308</ele>
        <time>2018-12-29T03:32:15Z</time>
      </trkpt>
      <trkpt lat="36.719740" lon="-119.317620">
        <ele>290.025</ele>
        <time>2018-12-29T03:32:35Z</time>
      </trkpt>
      <trkpt lat="36.719810" lon="-119.317460">
        <ele>289.513</ele>
        <time>2018-12-29T03:32:55Z</time>
      </trkpt>
      <trkpt lat="36.719860" lon="-119.317330">
        <ele>289.788</ele>
        <time>2018-12-29T03:33:15Z</time>
      </trkpt>
      <trkpt lat="36.719900" lon="-119.317220">
        <ele>289.228</ele>
        <time>2018-12-29T03:33:35Z</time>
      </trkpt>
      <trkpt lat="36.719940" lon="-119.317100">
        <ele>288.462</ele>
        <time>2018-12-29T03:33:55Z</time>
      </trkpt>
      <trkpt lat="36.719970" lon="-119.316980">
        <ele>288.322</ele>
        <time>2018-12-29T03:34:15Z</time>
      </trkpt>
      <trkpt lat="36.719990" lon="-119.316880">
        <ele>288.718</ele>
        <time>2018-12-29T03:34:35Z</time>
      </trkpt>
      <trkpt lat="36.720010" lon="-119.316780">
        <ele>289.247</ele>
        <time>2018-12-29T03:34:55Z</time>
      </trkpt>
      <trkpt lat="36.720030" lon="-119.316680">
        <ele>289.518</ele>
        <time>2018-12-29T03:35:15Z</time>
      </trkpt>
      <trkpt lat="36.720040" lon="-119.316570">
        <ele>289.598</ele>
        <time>2018-12-29T03:35:35Z</time>
      </trkpt>
      <trkpt lat="36.720050" lon="-119.316460">
        <ele>289.817</ele>
        <time>2018-12-29T03:35:55Z</time>
      </trkpt>
      <trkpt lat="36.720060" lon="-119.316360">
        <ele>290.308</ele>
        <time>2018-12-29T03:36:15Z</time>
      </trkpt>
      <trkpt lat="36.720060" lon="-119.316240">
        <ele>290.664</ele>
        <time>2018-12-29T03:36:35Z</time>
      </trkpt>
      <trkpt lat="36.720060" lon="-119.316010">
        <ele>292.442</ele>
        <time>2018-12-29T03:36:55Z</time>
      </trkpt>
      <trkpt lat="36.720050" lon="-119.315730">
        <ele>294.677</ele>
        <time>2018-12-29T03:37:15Z</time>
      </trkpt>
      <trkpt lat="36.720040" lon="-119.315340">
        <ele>297.377</ele>
        <time>2018-12-29T03:37:35Z</time>
      </trkpt>
      <trkpt lat="36.720040" lon="-119.314980">
        <ele>299.741</ele>
        <time>2018-12-29T03:37:55Z</time>
      </trkpt>
      <trkpt lat="36.720040" lon="-119.314790">
        <ele>300.141</ele>
        <time>2018-12-29T03:38:15Z</time>
      </trkpt>
      <trkpt lat="36.720060" lon="-119.314650">
        <ele>300.577</ele>
        <time>2018-12-29T03:38:35Z</time>
      </trkpt>
      <trkpt lat="36.720080" lon="-119.314490">
        <ele>301.066</ele>
        <time>2018-12-29T03:38:55Z</time>
      </trkpt>
      <trkpt lat="36.720110" lon="-119.314300">
        <ele>302.384</ele>
        <time>2018-12-29T03:39:15Z</time>
      </trkpt>
      <trkpt lat="36.720150" lon="-119.314150">
        <ele>306.707</ele>
        <time>2018-12-29T03:39:35Z</time>
      </trkpt>
      <trkpt lat="36.720180" lon="-119.314020">
        <ele>309.917</ele>
        <time>2018-12-29T03:39:55Z</time>
      </trkpt>
      <trkpt lat="36.720220" lon="-119.313880">
        <ele>310.408</ele>
        <time>2018-12-29T03:40:15Z</time>
      </trkpt>
      <trkpt lat="36.720270" lon="-119.313740">
        <ele>310.081</ele>
        <time>2018-12-29T03:40:35Z</time>
      </trkpt>
      <trkpt lat="36.720490" lon="-119.313200">
        <ele>312.479</ele>
        <time>2018-12-29T03:40:55Z</time>
      </trkpt>
      <trkpt lat="36.720600" lon="-119.312890">
        <ele>313.174</ele>
        <time>2018-12-29T03:41:15Z</time>
      </trkpt>
      <trkpt lat="36.720660" lon="-119.312740">
        <ele>314.234</ele>
        <time>2018-12-29T03:41:35Z</time>
      </trkpt>
      <trkpt lat="36.720710" lon="-119.312600">
        <ele>315.798</ele>
        <time>2018-12-29T03:41:55Z</time>
      </trkpt>
      <trkpt lat="36.720780" lon="-119.312390">
        <ele>317.678</ele>
        <time>2018-12-29T03:42:15Z</time>
      </trkpt>
      <trkpt lat="36.720840" lon="-119.312130">
        <ele>316.694</ele>
        <time>2018-12-29T03:42:35Z</time>
      </trkpt>
      <trkpt lat="36.720920" lon="-119.311830">
        <ele>316.483</ele>
        <time>2018-12-29T03:42:55Z</time>
      </trkpt>
      <trkpt lat="36.721160" lon="-119.310720">
        <ele>324.461</ele>
        <time>2018-12-29T03:43:15Z</time>
      </trkpt>
      <trkpt lat="36.721220" lon="-119.310450">
        <ele>326.621</ele>
        <time>2018-12-29T03:43:35Z</time>
      </trkpt>
      <trkpt lat="36.721270" lon="-119.310240">
        <ele>328.413</ele>
        <time>2018-12-29T03:43:55Z</time>
      </trkpt>
      <trkpt lat="36.721320" lon="-119.310080">
        <ele>330.308</ele>
        <time>2018-12-29T03:44:15Z</time>
      </trkpt>
      <trkpt lat="36.721400" lon="-119.309860">
        <ele>331.029</ele>
        <time>2018-12-29T03:44:35Z</time>
      </trkpt>
      <trkpt lat="36.721490" lon="-119.309670">
        <ele>332.687</ele>
        <time>2018-12-29T03:44:55Z</time>
      </trkpt>
      <trkpt lat="36.721600" lon="-119.309460">
        <ele>334.192</ele>
        <time>2018-12-29T03:45:15Z</time>
      </trkpt>
      <trkpt lat="36.721710" lon="-119.309290">
        <ele>332.322</ele>
        <time>2018-12-29T03:45:35Z</time>
      </trkpt>
      <trkpt lat="36.721840" lon="-119.309120">
        <ele>334.646</ele>
        <time>2018-12-29T03:45:55Z</time>
      </trkpt>
      <trkpt lat="36.721990" lon="-119.308940">
        <ele>336.896</ele>
        <time>2018-12-29T03:46:15Z</time>
      </trkpt>
      <trkpt lat="36.722610" lon="-119.308270">
        <ele>342.182</ele>
        <time>2018-12-29T03:46:35Z</time>
      </trkpt>
      <trkpt lat="36.722760" lon="-119.308100">
        <ele>343.391</ele>
        <time>2018-12-29T03:46:55Z</time>
      </trkpt>
      <trkpt lat="36.722910" lon="-119.307870">
        <ele>344.241</ele>
        <time>2018-12-29T03:47:15Z</time>
      </trkpt>
      <trkpt lat="36.723010" lon="-119.307690">
        <ele>345.381</ele>
        <time>2018-12-29T03:47:35Z</time>
      </trkpt>
      <trkpt lat="36.723120" lon="-119.307470">
        <ele>344.509</ele>
        <time>2018-12-29T03:47:55Z</time>
      </trkpt>
      <trkpt lat="36.723190" lon="-119.307290">
        <ele>345.908</ele>
        <time>2018-12-29T03:48:15Z</time>
      </trkpt>
      <trkpt lat="36.723260" lon="-119.307090">
        <ele>349.657</ele>
        <time>2018-12-29T03:48:35Z</time>
      </trkpt>
      <trkpt lat="36.723320" lon="-119.306890">
        <ele>353.765</ele>
        <time>2018-12-29T03:48:55Z</time>
      </trkpt>
      <trkpt lat="36.723350" lon="-119.306700">
        <ele>354.640</ele>
        <time>2018-12-29T03:49:15Z</time>
      </trkpt>
      <trkpt lat="36.723380" lon="-119.306540">
        <ele>354.380</ele>
        <time>2018-12-29T03:49:35Z</time>
      </trkpt>
      <trkpt lat="36.723400" lon="-119.306320">
        <ele>354.344</ele>
        <time>2018-12-29T03:49:55Z</time>
      </trkpt>
      <trkpt lat="36.723440" lon="-119.305860">
        <ele>357.384</ele>
        <time>2018-12-29T03:50:15Z</time>
      </trkpt>
      <trkpt lat="36.723480" lon="-119.305230">
        <ele>358.690</ele>
        <time>2018-12-29T03:50:35Z</time>
      </trkpt>
      <trkpt lat="36.723510" lon="-119.304900">
        <ele>359.599</ele>
        <time>2018-12-29T03:50:55Z</time>
      </trkpt>
      <trkpt lat="36.723550" lon="-119.304600">
        <ele>362.172</ele>
        <time>2018-12-29T03:51:15Z</time>
      </trkpt>
      <trkpt lat="36.723600" lon="-119.304210">
        <ele>365.313</ele>
        <time>2018-12-29T03:51:35Z</time>
      </trkpt>
      <trkpt lat="36.723700" lon="-119.303590">
        <ele>370.114</ele>
        <time>2018-12-29T03:51:55Z</time>
      </trkpt>
      <trkpt lat="36.723790" lon="-119.303030">
        <ele>372.408</ele>
        <time>2018-12-29T03:52:15Z</time>
      </trkpt>
      <trkpt lat="36.723840" lon="-119.302750">
        <ele>373.480</ele>
        <time>2018-12-29T03:52:35Z</time>
      </trkpt>
      <trkpt lat="36.723870" lon="-119.302510">
        <ele>374.758</ele>
        <time>2018-12-29T03:52:55Z</time>
      </trkpt>
      <trkpt lat="36.723890" lon="-119.302280">
        <ele>375.843</ele>
        <time>2018-12-29T03:53:15Z</time>
      </trkpt>
      <trkpt lat="36.723900" lon="-119.302120">
        <ele>375.723</ele>
        <time>2018-12-29T03:53:35Z</time>
      </trkpt>
      <trkpt lat="36.723900" lon="-119.301970">
        <ele>375.767</ele>
        <time>2018-12-29T03:53:55Z</time>
      </trkpt>
      <trkpt lat="36.723890" lon="-119.301850">
        <ele>375.657</ele>
        <time>2018-12-29T03:54:15Z</time>
      </trkpt>
      <trkpt lat="36.723880" lon="-119.301710">
        <ele>375.833</ele>
        <time>2018-12-29T03:54:35Z</time>
      </trkpt>
      <trkpt lat="36.723870" lon="-119.301620">
        <ele>375.942</ele>
        <time>2018-12-29T03:54:55Z</time>
      </trkpt>
      <trkpt lat="36.723840" lon="-119.301470">
        <ele>376.563</ele>
        <time>2018-12-29T03:55:15Z</time>
      </trkpt>
      <trkpt lat="36.723800" lon="-119.301290">
        <ele>378.544</ele>
        <time>2018-12-29T03:55:35Z</time>
      </trkpt>
      <trkpt lat="36.723750" lon="-119.301110">
        <ele>380.318</ele>
        <time>2018-12-29T03:55:55Z</time>
      </trkpt>
      <trkpt lat="36.723650" lon="-119.300760">
        <ele>383.308</ele>
        <time>2018-12-29T03:56:15Z</time>
      </trkpt>
      <trkpt lat="36.723520" lon="-119.300300">
        <ele>387.589</ele>
        <time>2018-12-29T03:56:35Z</time>
      </trkpt>
      <trkpt lat="36.723410" lon="-119.299920">
        <ele>389.677</ele>
        <time>2018-12-29T03:56:55Z</time>
      </trkpt>
      <trkpt lat="36.723360" lon="-119.299730">
        <ele>390.812</ele>
        <time>2018-12-29T03:57:15Z</time>
      </trkpt>
      <trkpt lat="36.723310" lon="-119.299470">
        <ele>392.252</ele>
        <time>2018-12-29T03:57:35Z</time>
      </trkpt>
      <trkpt lat="36.723290" lon="-119.299290">
        <ele>392.786</ele>
        <time>2018-12-29T03:57:55Z</time>
      </trkpt>
      <trkpt lat="36.723270" lon="-119.299100">
        <ele>394.356</ele>
        <time>2018-12-29T03:58:15Z</time>
      </trkpt>
      <trkpt lat="36.723250" lon="-119.298870">
        <ele>396.382</ele>
        <time>2018-12-29T03:58:35Z</time>
      </trkpt>
      <trkpt lat="36.723250" lon="-119.298640">
        <ele>397.631</ele>
        <time>2018-12-29T03:58:55Z</time>
      </trkpt>
      <trkpt lat="36.723260" lon="-119.298450">
        <ele>398.157</ele>
        <time>2018-12-29T03:59:15Z</time>
      </trkpt>
      <trkpt lat="36.723280" lon="-119.298240">
        <ele>398.100</ele>
        <time>2018-12-29T03:59:35Z</time>
      </trkpt>
      <trkpt lat="36.723310" lon="-119.298040">
        <ele>399.720</ele>
        <time>2018-12-29T03:59:55Z</time>
      </trkpt>
      <trkpt lat="36.723350" lon="-119.297830">
        <ele>401.708</ele>
        <time>2018-12-29T04:00:15Z</time>
      </trkpt>
      <trkpt lat="36.723400" lon="-119.297650">
        <ele>402.128</ele>
        <time>2018-12-29T04:00:35Z</time>
      </trkpt>
      <trkpt lat="36.723470" lon="-119.297390">
        <ele>401.886</ele>
        <time>2018-12-29T04:00:55Z</time>
      </trkpt>
      <trkpt lat="36.723600" lon="-119.297030">
        <ele>402.981</ele>
        <time>2018-12-29T04:01:15Z</time>
      </trkpt>
      <trkpt lat="36.723920" lon="-119.296110">
        <ele>407.921</ele>
        <time>2018-12-29T04:01:35Z</time>
      </trkpt>
      <trkpt lat="36.724220" lon="-119.295250">
        <ele>413.245</ele>
        <time>2018-12-29T04:01:55Z</time>
      </trkpt>
      <trkpt lat="36.724370" lon="-119.294840">
        <ele>415.665</ele>
        <time>2018-12-29T04:02:15Z</time>
      </trkpt>
      <trkpt lat="36.724470" lon="-119.294600">
        <ele>417.331</ele>
        <time>2018-12-29T04:02:35Z</time>
      </trkpt>
      <trkpt lat="36.724600" lon="-119.294340">
        <ele>418.680</ele>
        <time>2018-12-29T04:02:55Z</time>
      </trkpt>
      <trkpt lat="36.724730" lon="-119.294110">
        <ele>419.284</ele>
        <time>2018-12-29T04:03:15Z</time>
      </trkpt>
      <trkpt lat="36.724870" lon="-119.293890">
        <ele>419.207</ele>
        <time>2018-12-29T04:03:35Z</time>
      </trkpt>
      <trkpt lat="36.725020" lon="-119.293670">
        <ele>420.117</ele>
        <time>2018-12-29T04:03:55Z</time>
      </trkpt>
      <trkpt lat="36.725220" lon="-119.293400">
        <ele>423.208</ele>
        <time>2018-12-29T04:04:15Z</time>
      </trkpt>
      <trkpt lat="36.725370" lon="-119.293230">
        <ele>425.541</ele>
        <time>2018-12-29T04:04:35Z</time>
      </trkpt>
      <trkpt lat="36.725510" lon="-119.293090">
        <ele>427.079</ele>
        <time>2018-12-29T04:04:55Z</time>
      </trkpt>
      <trkpt lat="36.725710" lon="-119.292900">
        <ele>426.824</ele>
        <time>2018-12-29T04:05:15Z</time>
      </trkpt>
      <trkpt lat="36.725930" lon="-119.292710">
        <ele>429.464</ele>
        <time>2018-12-29T04:05:35Z</time>
      </trkpt>
      <trkpt lat="36.726130" lon="-119.292560">
        <ele>429.288</ele>
        <time>2018-12-29T04:05:55Z</time>
      </trkpt>
      <trkpt lat="36.726320" lon="-119.292440">
        <ele>429.568</ele>
        <time>2018-12-29T04:06:15Z</time>
      </trkpt>
      <trkpt lat="36.726490" lon="-119.292340">
        <ele>430.184</ele>
        <time>2018-12-29T04:06:35Z</time>
      </trkpt>
      <trkpt lat="36.726630" lon="-119.292270">
        <ele>430.953</ele>
        <time>2018-12-29T04:06:55Z</time>
      </trkpt>
      <trkpt lat="36.726910" lon="-119.292140">
        <ele>432.757</ele>
        <time>2018-12-29T04:07:15Z</time>
      </trkpt>
      <trkpt lat="36.727230" lon="-119.292010">
        <ele>436.100</ele>
        <time>2018-12-29T04:07:35Z</time>
      </trkpt>
      <trkpt lat="36.727510" lon="-119.291900">
        <ele>438.520</ele>
        <time>2018-12-29T04:07:55Z</time>
      </trkpt>
      <trkpt lat="36.727880" lon="-119.291760">
        <ele>439.608</ele>
        <time>2018-12-29T04:08:15Z</time>
      </trkpt>
      <trkpt lat="36.728200" lon="-119.291640">
        <ele>442.848</ele>
        <time>2018-12-29T04:08:35Z</time>
      </trkpt>
      <trkpt lat="36.728680" lon="-119.291450">
        <ele>445.936</ele>
        <time>2018-12-29T04:08:55Z</time>
      </trkpt>
      <trkpt lat="36.728900" lon="-119.291360">
        <ele>448.361</ele>
        <time>2018-12-29T04:09:15Z</time>
      </trkpt>
      <trkpt lat="36.729100" lon="-119.291250">
        <ele>450.171</ele>
        <time>2018-12-29T04:09:35Z</time>
      </trkpt>
      <trkpt lat="36.729270" lon="-119.291160">
        <ele>450.825</ele>
        <time>2018-12-29T04:09:55Z</time>
      </trkpt>
      <trkpt lat="36.729420" lon="-119.291060">
        <ele>451.125</ele>
        <time>2018-12-29T04:10:15Z</time>
      </trkpt>
      <trkpt lat="36.729550" lon="-119.290950">
        <ele>451.391</ele>
        <time>2018-12-29T04:10:35Z</time>
      </trkpt>
      <trkpt lat="36.729660" lon="-119.290850">
        <ele>453.070</ele>
        <time>2018-12-29T04:10:55Z</time>
      </trkpt>
      <trkpt lat="36.729760" lon="-119.290740">
        <ele>454.453</ele>
        <time>2018-12-29T04:11:15Z</time>
      </trkpt>
      <trkpt lat="36.729860" lon="-119.290630">
        <ele>455.204</ele>
        <time>2018-12-29T04:11:35Z</time>
      </trkpt>
      <trkpt lat="36.729980" lon="-119.290480">
        <ele>455.614</ele>
        <time>2018-12-29T04:11:55Z</time>
      </trkpt>
      <trkpt lat="36.730070" lon="-119.290340">
        <ele>455.608</ele>
        <time>2018-12-29T04:12:15Z</time>
      </trkpt>
      <trkpt lat="36.730170" lon="-119.290180">
        <ele>455.488</ele>
        <time>2018-12-29T04:12:35Z</time>
      </trkpt>
      <trkpt lat="36.730270" lon="-119.290000">
        <ele>456.296</ele>
        <time>2018-12-29T04:12:55Z</time>
      </trkpt>
      <trkpt lat="36.730350" lon="-119.289820">
        <ele>457.621</ele>
        <time>2018-12-29T04:13:15Z</time>
      </trkpt>
      <trkpt lat="36.730420" lon="-119.289640">
        <ele>460.341</ele>
        <time>2018-12-29T04:13:35Z</time>
      </trkpt>
      <trkpt lat="36.730500" lon="-119.289400">
        <ele>462.375</ele>
        <time>2018-12-29T04:13:55Z</time>
      </trkpt>
      <trkpt lat="36.730550" lon="-119.289210">
        <ele>462.185</ele>
        <time>2018-12-29T04:14:15Z</time>
      </trkpt>
      <trkpt lat="36.730590" lon="-119.289050">
        <ele>461.411</ele>
        <time>2018-12-29T04:14:35Z</time>
      </trkpt>
      <trkpt lat="36.730620" lon="-119.288850">
        <ele>460.990</ele>
        <time>2018-12-29T04:14:55Z</time>
      </trkpt>
      <trkpt lat="36.730650" lon="-119.288630">
        <ele>460.868</ele>
        <time>2018-12-29T04:15:15Z</time>
      </trkpt>
      <trkpt lat="36.730660" lon="-119.288450">
        <ele>460.842</ele>
        <time>2018-12-29T04:15:35Z</time>
      </trkpt>
      <trkpt lat="36.730660" lon="-119.288260">
        <ele>462.226</ele>
        <time>2018-12-29T04:15:55Z</time>
      </trkpt>
      <trkpt lat="36.730660" lon="-119.288110">
        <ele>463.408</ele>
        <time>2018-12-29T04:16:15Z</time>
      </trkpt>
      <trkpt lat="36.730650" lon="-119.287980">
        <ele>464.399</ele>
        <time>2018-12-29T04:16:35Z</time>
      </trkpt>
      <trkpt lat="36.730630" lon="-119.287820">
        <ele>465.257</ele>
        <time>2018-12-29T04:16:55Z</time>
      </trkpt>
      <trkpt lat="36.730590" lon="-119.287540">
        <ele>466.672</ele>
        <time>2018-12-29T04:17:15Z</time>
      </trkpt>
      <trkpt lat="36.730420" lon="-119.286730">
        <ele>471.932</ele>
        <time>2018-12-29T04:17:35Z</time>
      </trkpt>
      <trkpt lat="36.730350" lon="-119.286390">
        <ele>473.136</ele>
        <time>2018-12-29T04:17:55Z</time>
      </trkpt>
      <trkpt lat="36.730310" lon="-119.286200">
        <ele>473.616</ele>
        <time>2018-12-29T04:18:15Z</time>
      </trkpt>
      <trkpt lat="36.730270" lon="-119.285950">
        <ele>475.582</ele>
        <time>2018-12-29T04:18:35Z</time>
      </trkpt>
      <trkpt lat="36.730250" lon="-119.285620">
        <ele>478.621</ele>
        <time>2018-12-29T04:18:55Z</time>
      </trkpt>
      <trkpt lat="36.730240" lon="-119.285430">
        <ele>480.037</ele>
        <time>2018-12-29T04:19:15Z</time>
      </trkpt>
      <trkpt lat="36.730240" lon="-119.285190">
        <ele>481.249</ele>
        <time>2018-12-29T04:19:35Z</time>
      </trkpt>
      <trkpt lat="36.730250" lon="-119.284770">
        <ele>484.613</ele>
        <time>2018-12-29T04:19:55Z</time>
      </trkpt>
      <trkpt lat="36.730260" lon="-119.284600">
        <ele>485.708</ele>
        <time>2018-12-29T04:20:15Z</time>
      </trkpt>
      <trkpt lat="36.730290" lon="-119.284420">
        <ele>486.056</ele>
        <time>2018-12-29T04:20:35Z</time>
      </trkpt>
      <trkpt lat="36.730320" lon="-119.284220">
        <ele>485.944</ele>
        <time>2018-12-29T04:20:55Z</time>
      </trkpt>
      <trkpt lat="36.730350" lon="-119.283990">
        <ele>485.789</ele>
        <time>2018-12-29T04:21:15Z</time>
      </trkpt>
      <trkpt lat="36.730410" lon="-119.283720">
        <ele>487.649</ele>
        <time>2018-12-29T04:21:35Z</time>
      </trkpt>
      <trkpt lat="36.730530" lon="-119.283270">
        <ele>491.593</ele>
        <time>2018-12-29T04:21:55Z</time>
      </trkpt>
      <trkpt lat="36.730800" lon="-119.282310">
        <ele>494.313</ele>
        <time>2018-12-29T04:22:15Z</time>
      </trkpt>
      <trkpt lat="36.730960" lon="-119.281740">
        <ele>497.149</ele>
        <time>2018-12-29T04:22:35Z</time>
      </trkpt>
      <trkpt lat="36.731150" lon="-119.281040">
        <ele>503.068</ele>
        <time>2018-12-29T04:22:55Z</time>
      </trkpt>
      <trkpt lat="36.731420" lon="-119.280020">
        <ele>506.657</ele>
        <time>2018-12-29T04:23:15Z</time>
      </trkpt>
      <trkpt lat="36.731970" lon="-119.278020">
        <ele>510.800</ele>
        <time>2018-12-29T04:23:35Z</time>
      </trkpt>
      <trkpt lat="36.733220" lon="-119.273460">
        <ele>521.520</ele>
        <time>2018-12-29T04:23:55Z</time>
      </trkpt>
      <trkpt lat="36.733340" lon="-119.273000">
        <ele>524.008</ele>
        <time>2018-12-29T04:24:15Z</time>
      </trkpt>
      <trkpt lat="36.735190" lon="-119.266210">
        <ele>529.528</ele>
        <time>2018-12-29T04:24:35Z</time>
      </trkpt>
      <trkpt lat="36.735590" lon="-119.264750">
        <ele>527.636</ele>
        <time>2018-12-29T04:24:55Z</time>
      </trkpt>
      <trkpt lat="36.737330" lon="-119.258390">
        <ele>520.721</ele>
        <time>2018-12-29T04:25:15Z</time>
      </trkpt>
      <trkpt lat="36.739770" lon="-119.249450">
        <ele>503.511</ele>
        <time>2018-12-29T04:25:35Z</time>
      </trkpt>
      <trkpt lat="36.740170" lon="-119.247990">
        <ele>500.765</ele>
        <time>2018-12-29T04:25:55Z</time>
      </trkpt>
      <trkpt lat="36.740760" lon="-119.245830">
        <ele>495.425</ele>
        <time>2018-12-29T04:26:15Z</time>
      </trkpt>
      <trkpt lat="36.741030" lon="-119.244820">
        <ele>496.121</ele>
        <time>2018-12-29T04:26:35Z</time>
      </trkpt>
      <trkpt lat="36.743490" lon="-119.235810">
        <ele>478.620</ele>
        <time>2018-12-29T04:26:55Z</time>
      </trkpt>
      <trkpt lat="36.743620" lon="-119.235340">
        <ele>478.111</ele>
        <time>2018-12-29T04:27:15Z</time>
      </trkpt>
      <trkpt lat="36.743890" lon="-119.234360">
        <ele>481.221</ele>
        <time>2018-12-29T04:27:35Z</time>
      </trkpt>
      <trkpt lat="36.744020" lon="-119.233890">
        <ele>481.003</ele>
        <time>2018-12-29T04:27:55Z</time>
      </trkpt>
      <trkpt lat="36.744150" lon="-119.233460">
        <ele>480.808</ele>
        <time>2018-12-29T04:28:15Z</time>
      </trkpt>
      <trkpt lat="36.744250" lon="-119.233140">
        <ele>477.324</ele>
        <time>2018-12-29T04:28:35Z</time>
      </trkpt>
      <trkpt lat="36.744360" lon="-119.232850">
        <ele>475.662</ele>
        <time>2018-12-29T04:28:55Z</time>
      </trkpt>
      <trkpt lat="36.744470" lon="-119.232610">
        <ele>474.277</ele>
        <time>2018-12-29T04:29:15Z</time>
      </trkpt>
      <trkpt lat="36.744600" lon="-119.232330">
        <ele>471.557</ele>
        <time>2018-12-29T04:29:35Z</time>
      </trkpt>
      <trkpt lat="36.744730" lon="-119.232090">
        <ele>471.131</ele>
        <time>2018-12-29T04:29:55Z</time>
      </trkpt>
      <trkpt lat="36.744870" lon="-119.231840">
        <ele>471.081</ele>
        <time>2018-12-29T04:30:15Z</time>
      </trkpt>
      <trkpt lat="36.745240" lon="-119.231210">
        <ele>472.247</ele>
        <time>2018-12-29T04:30:35Z</time>
      </trkpt>
      <trkpt lat="36.745810" lon="-119.230220">
        <ele>472.326</ele>
        <time>2018-12-29T04:30:55Z</time>
      </trkpt>
      <trkpt lat="36.746280" lon="-119.229390">
        <ele>464.247</ele>
        <time>2018-12-29T04:31:15Z</time>
      </trkpt>
      <trkpt lat="36.747250" lon="-119.227700">
        <ele>462.529</ele>
        <time>2018-12-29T04:31:35Z</time>
      </trkpt>
      <trkpt lat="36.747630" lon="-119.227020">
        <ele>455.721</ele>
        <time>2018-12-29T04:31:55Z</time>
      </trkpt>
      <trkpt lat="36.747960" lon="-119.226470">
        <ele>453.908</ele>
        <time>2018-12-29T04:32:15Z</time>
      </trkpt>
      <trkpt lat="36.748210" lon="-119.226060">
        <ele>453.297</ele>
        <time>2018-12-29T04:32:35Z</time>
      </trkpt>
      <trkpt lat="36.748540" lon="-119.225470">
        <ele>451.545</ele>
        <time>2018-12-29T04:32:55Z</time>
      </trkpt>
      <trkpt lat="36.748840" lon="-119.224950">
        <ele>452.680</ele>
        <time>2018-12-29T04:33:15Z</time>
      </trkpt>
      <trkpt lat="36.749130" lon="-119.224440">
        <ele>455.950</ele>
        <time>2018-12-29T04:33:35Z</time>
      </trkpt>
      <trkpt lat="36.749290" lon="-119.224110">
        <ele>456.714</ele>
        <time>2018-12-29T04:33:55Z</time>
      </trkpt>
      <trkpt lat="36.749420" lon="-119.223840">
        <ele>457.044</ele>
        <time>2018-12-29T04:34:15Z</time>
      </trkpt>
      <trkpt lat="36.749490" lon="-119.223640">
        <ele>456.620</ele>
        <time>2018-12-29T04:34:35Z</time>
      </trkpt>
      <trkpt lat="36.749540" lon="-119.223520">
        <ele>456.349</ele>
        <time>2018-12-29T04:34:55Z</time>
      </trkpt>
      <trkpt lat="36.749610" lon="-119.223320">
        <ele>455.979</ele>
        <time>2018-12-29T04:35:15Z</time>
      </trkpt>
      <trkpt lat="36.749670" lon="-119.223070">
        <ele>455.405</ele>
        <time>2018-12-29T04:35:35Z</time>
      </trkpt>
      <trkpt lat="36.749720" lon="-119.222860">
        <ele>455.425</ele>
        <time>2018-12-29T04:35:55Z</time>
      </trkpt>
      <trkpt lat="36.749760" lon="-119.222660">
        <ele>455.008</ele>
        <time>2018-12-29T04:36:15Z</time>
      </trkpt>
      <trkpt lat="36.749790" lon="-119.222470">
        <ele>455.340</ele>
        <time>2018-12-29T04:36:35Z</time>
      </trkpt>
      <trkpt lat="36.749820" lon="-119.222310">
        <ele>455.868</ele>
        <time>2018-12-29T04:36:55Z</time>
      </trkpt>
      <trkpt lat="36.749830" lon="-119.222190">
        <ele>456.243</ele>
        <time>2018-12-29T04:37:15Z</time>
      </trkpt>
      <trkpt lat="36.749860" lon="-119.221960">
        <ele>456.783</ele>
        <time>2018-12-29T04:37:35Z</time>
      </trkpt>
      <trkpt lat="36.749890" lon="-119.221560">
        <ele>456.017</ele>
        <time>2018-12-29T04:37:55Z</time>
      </trkpt>
      <trkpt lat="36.749920" lon="-119.221200">
        <ele>454.127</ele>
        <time>2018-12-29T04:38:15Z</time>
      </trkpt>
      <trkpt lat="36.749950" lon="-119.220920">
        <ele>451.933</ele>
        <time>2018-12-29T04:38:35Z</time>
      </trkpt>
      <trkpt lat="36.749980" lon="-119.220660">
        <ele>452.042</ele>
        <time>2018-12-29T04:38:55Z</time>
      </trkpt>
      <trkpt lat="36.750010" lon="-119.220500">
        <ele>451.466</ele>
        <time>2018-12-29T04:39:15Z</time>
      </trkpt>
      <trkpt lat="36.750050" lon="-119.220350">
        <ele>450.329</ele>
        <time>2018-12-29T04:39:35Z</time>
      </trkpt>
      <trkpt lat="36.750090" lon="-119.220190">
        <ele>448.021</ele>
        <time>2018-12-29T04:39:55Z</time>
      </trkpt>
      <trkpt lat="36.750150" lon="-119.220020">
        <ele>446.808</ele>
        <time>2018-12-29T04:40:15Z</time>
      </trkpt>
      <trkpt lat="36.750190" lon="-119.219910">
        <ele>447.069</ele>
        <time>2018-12-29T04:40:35Z</time>
      </trkpt>
      <trkpt lat="36.750240" lon="-119.219790">
        <ele>447.367</ele>
        <time>2018-12-29T04:40:55Z</time>
      </trkpt>
      <trkpt lat="36.750340" lon="-119.219580">
        <ele>447.512</ele>
        <time>2018-12-29T04:41:15Z</time>
      </trkpt>
      <trkpt lat="36.750460" lon="-119.219350">
        <ele>444.212</ele>
        <time>2018-12-29T04:41:35Z</time>
      </trkpt>
      <trkpt lat="36.750580" lon="-119.219160">
        <ele>441.626</ele>
        <time>2018-12-29T04:41:55Z</time>
      </trkpt>
      <trkpt lat="36.750670" lon="-119.219020">
        <ele>439.986</ele>
        <time>2018-12-29T04:42:15Z</time>
      </trkpt>
      <trkpt lat="36.750780" lon="-119.218870">
        <ele>439.752</ele>
        <time>2018-12-29T04:42:35Z</time>
      </trkpt>
      <trkpt lat="36.751000" lon="-119.218550">
        <ele>439.311</ele>
        <time>2018-12-29T04:42:55Z</time>
      </trkpt>
      <trkpt lat="36.751190" lon="-119.218290">
        <ele>440.599</ele>
        <time>2018-12-29T04:43:15Z</time>
      </trkpt>
      <trkpt lat="36.751340" lon="-119.218070">
        <ele>439.207</ele>
        <time>2018-12-29T04:43:35Z</time>
      </trkpt>
      <trkpt lat="36.751590" lon="-119.217680">
        <ele>434.427</ele>
        <time>2018-12-29T04:43:55Z</time>
      </trkpt>
      <trkpt lat="36.751770" lon="-119.217400">
        <ele>431.608</ele>
        <time>2018-12-29T04:44:15Z</time>
      </trkpt>
      <trkpt lat="36.752000" lon="-119.217070">
        <ele>431.122</ele>
        <time>2018-12-29T04:44:35Z</time>
      </trkpt>
      <trkpt lat="36.752810" lon="-119.215930">
        <ele>428.530</ele>
        <time>2018-12-29T04:44:55Z</time>
      </trkpt>
      <trkpt lat="36.753200" lon="-119.215370">
        <ele>428.965</ele>
        <time>2018-12-29T04:45:15Z</time>
      </trkpt>
      <trkpt lat="36.753430" lon="-119.215020">
        <ele>430.345</ele>
        <time>2018-12-29T04:45:35Z</time>
      </trkpt>
      <trkpt lat="36.753630" lon="-119.214750">
        <ele>430.079</ele>
        <time>2018-12-29T04:45:55Z</time>
      </trkpt>
      <trkpt lat="36.753770" lon="-119.214530">
        <ele>428.999</ele>
        <time>2018-12-29T04:46:15Z</time>
      </trkpt>
      <trkpt lat="36.753890" lon="-119.214320">
        <ele>428.875</ele>
        <time>2018-12-29T04:46:35Z</time>
      </trkpt>
      <trkpt lat="36.753980" lon="-119.214160">
        <ele>429.354</ele>
        <time>2018-12-29T04:46:55Z</time>
      </trkpt>
      <trkpt lat="36.754060" lon="-119.214010">
        <ele>429.446</ele>
        <time>2018-12-29T04:47:15Z</time>
      </trkpt>
      <trkpt lat="36.754140" lon="-119.213820">
        <ele>429.188</ele>
        <time>2018-12-29T04:47:35Z</time>
      </trkpt>
      <trkpt lat="36.754210" lon="-119.213660">
        <ele>428.716</ele>
        <time>2018-12-29T04:47:55Z</time>
      </trkpt>
      <trkpt lat="36.754280" lon="-119.213480">
        <ele>428.208</ele>
        <time>2018-12-29T04:48:15Z</time>
      </trkpt>
      <trkpt lat="36.754320" lon="-119.213340">
        <ele>428.567</ele>
        <time>2018-12-29T04:48:35Z</time>
      </trkpt>
      <trkpt lat="36.754360" lon="-119.213180">
        <ele>429.945</ele>
        <time>2018-12-29T04:48:55Z</time>
      </trkpt>
      <trkpt lat="36.754420" lon="-119.212980">
        <ele>433.160</ele>
        <time>2018-12-29T04:49:15Z</time>
      </trkpt>
      <trkpt lat="36.754460" lon="-119.212780">
        <ele>434.360</ele>
        <time>2018-12-29T04:49:35Z</time>
      </trkpt>
      <trkpt lat="36.754510" lon="-119.212580">
        <ele>435.184</ele>
        <time>2018-12-29T04:49:55Z</time>
      </trkpt>
      <trkpt lat="36.754530" lon="-119.212420">
        <ele>435.294</ele>
        <time>2018-12-29T04:50:15Z</time>
      </trkpt>
      <trkpt lat="36.754560" lon="-119.212210">
        <ele>435.680</ele>
        <time>2018-12-29T04:50:35Z</time>
      </trkpt>
      <trkpt lat="36.754590" lon="-119.211980">
        <ele>436.149</ele>
        <time>2018-12-29T04:50:55Z</time>
      </trkpt>
      <trkpt lat="36.754620" lon="-119.211690">
        <ele>436.982</ele>
        <time>2018-12-29T04:51:15Z</time>
      </trkpt>
      <trkpt lat="36.754650" lon="-119.211330">
        <ele>438.443</ele>
        <time>2018-12-29T04:51:35Z</time>
      </trkpt>
      <trkpt lat="36.754700" lon="-119.210660">
        <ele>441.217</ele>
        <time>2018-12-29T04:51:55Z</time>
      </trkpt>
      <trkpt lat="36.754770" lon="-119.209930">
        <ele>441.908</ele>
        <time>2018-12-29T04:52:15Z</time>
      </trkpt>
      <trkpt lat="36.754830" lon="-119.209180">
        <ele>448.531</ele>
        <time>2018-12-29T04:52:35Z</time>
      </trkpt>
      <trkpt lat="36.754860" lon="-119.208770">
        <ele>448.679</ele>
        <time>2018-12-29T04:52:55Z</time>
      </trkpt>
      <trkpt lat="36.754880" lon="-119.208540">
        <ele>449.364</ele>
        <time>2018-12-29T04:53:15Z</time>
      </trkpt>
      <trkpt lat="36.754890" lon="-119.208370">
        <ele>450.814</ele>
        <time>2018-12-29T04:53:35Z</time>
      </trkpt>
      <trkpt lat="36.754890" lon="-119.208180">
        <ele>452.828</ele>
        <time>2018-12-29T04:53:55Z</time>
      </trkpt>
      <trkpt lat="36.754880" lon="-119.208050">
        <ele>454.698</ele>
        <time>2018-12-29T04:54:15Z</time>
      </trkpt>
      <trkpt lat="36.754870" lon="-119.207900">
        <ele>456.654</ele>
        <time>2018-12-29T04:54:35Z</time>
      </trkpt>
      <trkpt lat="36.754860" lon="-119.207760">
        <ele>458.393</ele>
        <time>2018-12-29T04:54:55Z</time>
      </trkpt>
      <trkpt lat="36.754840" lon="-119.207610">
        <ele>459.837</ele>
        <time>2018-12-29T04:55:15Z</time>
      </trkpt>
      <trkpt lat="36.754810" lon="-119.207470">
        <ele>460.649</ele>
        <time>2018-12-29T04:55:35Z</time>
      </trkpt>
      <trkpt lat="36.754790" lon="-119.207350">
        <ele>461.413</ele>
        <time>2018-12-29T04:55:55Z</time>
      </trkpt>
      <trkpt lat="36.754750" lon="-119.207210">
        <ele>461.308</ele>
        <time>2018-12-29T04:56:15Z</time>
      </trkpt>
      <trkpt lat="36.754710" lon="-119.207060">
        <ele>461.926</ele>
        <time>2018-12-29T04:56:35Z</time>
      </trkpt>
      <trkpt lat="36.754660" lon="-119.206920">
        <ele>463.054</ele>
        <time>2018-12-29T04:56:55Z</time>
      </trkpt>
      <trkpt lat="36.754620" lon="-119.206800">
        <ele>464.039</ele>
        <time>2018-12-29T04:57:15Z</time>
      </trkpt>
      <trkpt lat="36.754570" lon="-119.206660">
        <ele>465.189</ele>
        <time>2018-12-29T04:57:35Z</time>
      </trkpt>
      <trkpt lat="36.754500" lon="-119.206520">
        <ele>465.733</ele>
        <time>2018-12-29T04:57:55Z</time>
      </trkpt>
      <trkpt lat="36.754410" lon="-119.206340">
        <ele>466.583</ele>
        <time>2018-12-29T04:58:15Z</time>
      </trkpt>
      <trkpt lat="36.754290" lon="-119.206110">
        <ele>466.319</ele>
        <time>2018-12-29T04:58:35Z</time>
      </trkpt>
      <trkpt lat="36.754110" lon="-119.205770">
        <ele>464.518</ele>
        <time>2018-12-29T04:58:55Z</time>
      </trkpt>
      <trkpt lat="36.753990" lon="-119.205510">
        <ele>465.743</ele>
        <time>2018-12-29T04:59:15Z</time>
      </trkpt>
      <trkpt lat="36.753800" lon="-119.205150">
        <ele>465.764</ele>
        <time>2018-12-29T04:59:35Z</time>
      </trkpt>
      <trkpt lat="36.753660" lon="-119.204860">
        <ele>465.110</ele>
        <time>2018-12-29T04:59:55Z</time>
      </trkpt>
      <trkpt lat="36.753520" lon="-119.204580">
        <ele>465.508</ele>
        <time>2018-12-29T05:00:15Z</time>
      </trkpt>
      <trkpt lat="36.753420" lon="-119.204390">
        <ele>463.947</ele>
        <time>2018-12-29T05:00:35Z</time>
      </trkpt>
      <trkpt lat="36.753310" lon="-119.204180">
        <ele>462.725</ele>
        <time>2018-12-29T05:00:55Z</time>
      </trkpt>
      <trkpt lat="36.753220" lon="-119.203990">
        <ele>462.790</ele>
        <time>2018-12-29T05:01:15Z</time>
      </trkpt>
      <trkpt lat="36.753160" lon="-119.203840">
        <ele>463.570</ele>
        <time>2018-12-29T05:01:35Z</time>
      </trkpt>
      <trkpt lat="36.753100" lon="-119.203690">
        <ele>464.514</ele>
        <time>2018-12-29T05:01:55Z</time>
      </trkpt>
      <trkpt lat="36.753040" lon="-119.203520">
        <ele>465.574</ele>
        <time>2018-12-29T05:02:15Z</time>
      </trkpt>
      <trkpt lat="36.753000" lon="-119.203370">
        <ele>466.280</ele>
        <time>2018-12-29T05:02:35Z</time>
      </trkpt>
      <trkpt lat="36.752960" lon="-119.203210">
        <ele>466.379</ele>
        <time>2018-12-29T05:02:55Z</time>
      </trkpt>
      <trkpt lat="36.752920" lon="-119.203020">
        <ele>465.287</ele>
        <time>2018-12-29T05:03:15Z</time>
      </trkpt>
      <trkpt lat="36.752890" lon="-119.202810">
        <ele>465.142</ele>
        <time>2018-12-29T05:03:35Z</time>
      </trkpt>
      <trkpt lat="36.752870" lon="-119.202640">
        <ele>465.126</ele>
        <time>2018-12-29T05:03:55Z</time>
      </trkpt>
      <trkpt lat="36.752860" lon="-119.202480">
        <ele>465.708</ele>
        <time>2018-12-29T05:04:15Z</time>
      </trkpt>
      <trkpt lat="36.752860" lon="-119.202300">
        <ele>467.061</ele>
        <time>2018-12-29T05:04:35Z</time>
      </trkpt>
      <trkpt lat="36.752860" lon="-119.202130">
        <ele>468.959</ele>
        <time>2018-12-29T05:04:55Z</time>
      </trkpt>
      <trkpt lat="36.752870" lon="-119.201950">
        <ele>470.524</ele>
        <time>2018-12-29T05:05:15Z</time>
      </trkpt>
      <trkpt lat="36.752890" lon="-119.201780">
        <ele>471.974</ele>
        <time>2018-12-29T05:05:35Z</time>
      </trkpt>
      <trkpt lat="36.752930" lon="-119.201530">
        <ele>471.758</ele>
        <time>2018-12-29T05:05:55Z</time>
      </trkpt>
      <trkpt lat="36.752990" lon="-119.201240">
        <ele>470.888</ele>
        <time>2018-12-29T05:06:15Z</time>
      </trkpt>
      <trkpt lat="36.753090" lon="-119.200940">
        <ele>471.014</ele>
        <time>2018-12-29T05:06:35Z</time>
      </trkpt>
      <trkpt lat="36.753170" lon="-119.200710">
        <ele>471.393</ele>
        <time>2018-12-29T05:06:55Z</time>
      </trkpt>
      <trkpt lat="36.753280" lon="-119.200490">
        <ele>472.268</ele>
        <time>2018-12-29T05:07:15Z</time>
      </trkpt>
      <trkpt lat="36.753630" lon="-119.199800">
        <ele>471.542</ele>
        <time>2018-12-29T05:07:35Z</time>
      </trkpt>
      <trkpt lat="36.753910" lon="-119.199250">
        <ele>475.526</ele>
        <time>2018-12-29T05:07:55Z</time>
      </trkpt>
      <trkpt lat="36.754270" lon="-119.198550">
        <ele>473.908</ele>
        <time>2018-12-29T05:08:15Z</time>
      </trkpt>
      <trkpt lat="36.754720" lon="-119.197700">
        <ele>474.239</ele>
        <time>2018-12-29T05:08:35Z</time>
      </trkpt>
      <trkpt lat="36.754910" lon="-119.197310">
        <ele>475.427</ele>
        <time>2018-12-29T05:08:55Z</time>
      </trkpt>
      <trkpt lat="36.755100" lon="-119.196950">
        <ele>475.382</ele>
        <time>2018-12-29T05:09:15Z</time>
      </trkpt>
      <trkpt lat="36.755180" lon="-119.196790">
        <ele>476.862</ele>
        <time>2018-12-29T05:09:35Z</time>
      </trkpt>
      <trkpt lat="36.755240" lon="-119.196670">
        <ele>477.666</ele>
        <time>2018-12-29T05:09:55Z</time>
      </trkpt>
      <trkpt lat="36.755280" lon="-119.196570">
        <ele>477.676</ele>
        <time>2018-12-29T05:10:15Z</time>
      </trkpt>
      <trkpt lat="36.755350" lon="-119.196390">
        <ele>476.812</ele>
        <time>2018-12-29T05:10:35Z</time>
      </trkpt>
      <trkpt lat="36.755400" lon="-119.196240">
        <ele>475.391</ele>
        <time>2018-12-29T05:10:55Z</time>
      </trkpt>
      <trkpt lat="36.755450" lon="-119.196070">
        <ele>474.733</ele>
        <time>2018-12-29T05:11:15Z</time>
      </trkpt>
      <trkpt lat="36.755500" lon="-119.195880">
        <ele>475.623</ele>
        <time>2018-12-29T05:11:35Z</time>
      </trkpt>
      <trkpt lat="36.755540" lon="-119.195710">
        <ele>477.315</ele>
        <time>2018-12-29T05:11:55Z</time>
      </trkpt>
      <trkpt lat="36.755570" lon="-119.195520">
        <ele>479.308</ele>
        <time>2018-12-29T05:12:15Z</time>
      </trkpt>
      <trkpt lat="36.755600" lon="-119.195280">
        <ele>480.666</ele>
        <time>2018-12-29T05:12:35Z</time>
      </trkpt>
      <trkpt lat="36.755620" lon="-119.195100">
        <ele>481.264</ele>
        <time>2018-12-29T05:12:55Z</time>
      </trkpt>
      <trkpt lat="36.755630" lon="-119.194840">
        <ele>482.769</ele>
        <time>2018-12-29T05:13:15Z</time>
      </trkpt>
      <trkpt lat="36.755630" lon="-119.194620">
        <ele>482.229</ele>
        <time>2018-12-29T05:13:35Z</time>
      </trkpt>
      <trkpt lat="36.755630" lon="-119.194460">
        <ele>482.433</ele>
        <time>2018-12-29T05:13:55Z</time>
      </trkpt>
      <trkpt lat="36.755610" lon="-119.194250">
        <ele>482.983</ele>
        <time>2018-12-29T05:14:15Z</time>
      </trkpt>
      <trkpt lat="36.755590" lon="-119.194010">
        <ele>484.919</ele>
        <time>2018-12-29T05:14:35Z</time>
      </trkpt>
      <trkpt lat="36.755560" lon="-119.193820">
        <ele>485.728</ele>
        <time>2018-12-29T05:14:55Z</time>
      </trkpt>
      <trkpt lat="36.755500" lon="-119.193560">
        <ele>485.521</ele>
        <time>2018-12-29T05:15:15Z</time>
      </trkpt>
      <trkpt lat="36.755450" lon="-119.193340">
        <ele>486.041</ele>
        <time>2018-12-29T05:15:35Z</time>
      </trkpt>
      <trkpt lat="36.755390" lon="-119.193170">
        <ele>485.805</ele>
        <time>2018-12-29T05:15:55Z</time>
      </trkpt>
      <trkpt lat="36.755330" lon="-119.192990">
        <ele>484.908</ele>
        <time>2018-12-29T05:16:15Z</time>
      </trkpt>
      <trkpt lat="36.755270" lon="-119.192840">
        <ele>483.745</ele>
        <time>2018-12-29T05:16:35Z</time>
      </trkpt>
      <trkpt lat="36.755180" lon="-119.192640">
        <ele>482.923</ele>
        <time>2018-12-29T05:16:55Z</time>
      </trkpt>
      <trkpt lat="36.755090" lon="-119.192460">
        <ele>485.218</ele>
        <time>2018-12-29T05:17:15Z</time>
      </trkpt>
      <trkpt lat="36.755000" lon="-119.192290">
        <ele>487.438</ele>
        <time>2018-12-29T05:17:35Z</time>
      </trkpt>
      <trkpt lat="36.754920" lon="-119.192150">
        <ele>488.742</ele>
        <time>2018-12-29T05:17:55Z</time>
      </trkpt>
      <trkpt lat="36.754820" lon="-119.192000">
        <ele>489.552</ele>
        <time>2018-12-29T05:18:15Z</time>
      </trkpt>
      <trkpt lat="36.754690" lon="-119.191810">
        <ele>489.748</ele>
        <time>2018-12-29T05:18:35Z</time>
      </trkpt>
      <trkpt lat="36.754560" lon="-119.191640">
        <ele>487.387</ele>
        <time>2018-12-29T05:18:55Z</time>
      </trkpt>
      <trkpt lat="36.754350" lon="-119.191370">
        <ele>482.589</ele>
        <time>2018-12-29T05:19:15Z</time>
      </trkpt>
      <trkpt lat="36.754250" lon="-119.191250">
        <ele>479.706</ele>
        <time>2018-12-29T05:19:35Z</time>
      </trkpt>
      <trkpt lat="36.754170" lon="-119.191150">
        <ele>478.326</ele>
        <time>2018-12-29T05:19:55Z</time>
      </trkpt>
      <trkpt lat="36.754090" lon="-119.191020">
        <ele>477.208</ele>
        <time>2018-12-29T05:20:15Z</time>
      </trkpt>
      <trkpt lat="36.754020" lon="-119.190910">
        <ele>477.611</ele>
        <time>2018-12-29T05:20:35Z</time>
      </trkpt>
      <trkpt lat="36.753950" lon="-119.190780">
        <ele>478.939</ele>
        <time>2018-12-29T05:20:55Z</time>
      </trkpt>
      <trkpt lat="36.753890" lon="-119.190660">
        <ele>480.524</ele>
        <time>2018-12-29T05:21:15Z</time>
      </trkpt>
      <trkpt lat="36.753800" lon="-119.190450">
        <ele>483.964</ele>
        <time>2018-12-29T05:21:35Z</time>
      </trkpt>
      <trkpt lat="36.753750" lon="-119.190280">
        <ele>486.028</ele>
        <time>2018-12-29T05:21:55Z</time>
      </trkpt>
      <trkpt lat="36.753700" lon="-119.190140">
        <ele>487.348</ele>
        <time>2018-12-29T05:22:15Z</time>
      </trkpt>
      <trkpt lat="36.753660" lon="-119.189970">
        <ele>488.474</ele>
        <time>2018-12-29T05:22:35Z</time>
      </trkpt>
      <trkpt lat="36.753630" lon="-119.189810">
        <ele>489.223</ele>
        <time>2018-12-29T05:22:55Z</time>
      </trkpt>
      <trkpt lat="36.753600" lon="-119.189640">
        <ele>489.526</ele>
        <time>2018-12-29T05:23:15Z</time>
      </trkpt>
      <trkpt lat="36.753580" lon="-119.189460">
        <ele>489.747</ele>
        <time>2018-12-29T05:23:35Z</time>
      </trkpt>
      <trkpt lat="36.753560" lon="-119.189300">
        <ele>489.411</ele>
        <time>2018-12-29T05:23:55Z</time>
      </trkpt>
      <trkpt lat="36.753560" lon="-119.189200">
        <ele>489.408</ele>
        <time>2018-12-29T05:24:15Z</time>
      </trkpt>
      <trkpt lat="36.753560" lon="-119.189060">
        <ele>489.515</ele>
        <time>2018-12-29T05:24:35Z</time>
      </trkpt>
      <trkpt lat="36.753560" lon="-119.188910">
        <ele>488.873</ele>
        <time>2018-12-29T05:24:55Z</time>
      </trkpt>
      <trkpt lat="36.753580" lon="-119.188690">
        <ele>488.338</ele>
        <time>2018-12-29T05:25:15Z</time>
      </trkpt>
      <trkpt lat="36.753610" lon="-119.188520">
        <ele>488.398</ele>
        <time>2018-12-29T05:25:35Z</time>
      </trkpt>
      <trkpt lat="36.753630" lon="-119.188380">
        <ele>487.732</ele>
        <time>2018-12-29T05:25:55Z</time>
      </trkpt>
      <trkpt lat="36.753670" lon="-119.188200">
        <ele>487.222</ele>
        <time>2018-12-29T05:26:15Z</time>
      </trkpt>
      <trkpt lat="36.753840" lon="-119.187470">
        <ele>487.338</ele>
        <time>2018-12-29T05:26:35Z</time>
      </trkpt>
      <trkpt lat="36.754130" lon="-119.186220">
        <ele>483.927</ele>
        <time>2018-12-29T05:26:55Z</time>
      </trkpt>
      <trkpt lat="36.754350" lon="-119.185270">
        <ele>485.589</ele>
        <time>2018-12-29T05:27:15Z</time>
      </trkpt>
      <trkpt lat="36.754550" lon="-119.184370">
        <ele>488.906</ele>
        <time>2018-12-29T05:27:35Z</time>
      </trkpt>
      <trkpt lat="36.754730" lon="-119.183600">
        <ele>490.226</ele>
        <time>2018-12-29T05:27:55Z</time>
      </trkpt>
      <trkpt lat="36.754790" lon="-119.183340">
        <ele>493.108</ele>
        <time>2018-12-29T05:28:15Z</time>
      </trkpt>
      <trkpt lat="36.754850" lon="-119.183140">
        <ele>495.411</ele>
        <time>2018-12-29T05:28:35Z</time>
      </trkpt>
      <trkpt lat="36.754910" lon="-119.182970">
        <ele>497.839</ele>
        <time>2018-12-29T05:28:55Z</time>
      </trkpt>
      <trkpt lat="36.754970" lon="-119.182820">
        <ele>499.264</ele>
        <time>2018-12-29T05:29:15Z</time>
      </trkpt>
      <trkpt lat="36.755050" lon="-119.182640">
        <ele>498.894</ele>
        <time>2018-12-29T05:29:35Z</time>
      </trkpt>
      <trkpt lat="36.755160" lon="-119.182450">
        <ele>499.398</ele>
        <time>2018-12-29T05:29:55Z</time>
      </trkpt>
      <trkpt lat="36.755310" lon="-119.182210">
        <ele>501.228</ele>
        <time>2018-12-29T05:30:15Z</time>
      </trkpt>
      <trkpt lat="36.755530" lon="-119.181860">
        <ele>499.444</ele>
        <time>2018-12-29T05:30:35Z</time>
      </trkpt>
      <trkpt lat="36.755820" lon="-119.181420">
        <ele>498.873</ele>
        <time>2018-12-29T05:30:55Z</time>
      </trkpt>
      <trkpt lat="36.755960" lon="-119.181200">
        <ele>499.029</ele>
        <time>2018-12-29T05:31:15Z</time>
      </trkpt>
      <trkpt lat="36.756060" lon="-119.181020">
        <ele>499.500</ele>
        <time>2018-12-29T05:31:35Z</time>
      </trkpt>
      <trkpt lat="36.756150" lon="-119.180860">
        <ele>500.720</ele>
        <time>2018-12-29T05:31:55Z</time>
      </trkpt>
      <trkpt lat="36.756210" lon="-119.180710">
        <ele>500.108</ele>
        <time>2018-12-29T05:32:15Z</time>
      </trkpt>
      <trkpt lat="36.756260" lon="-119.180580">
        <ele>500.625</ele>
        <time>2018-12-29T05:32:35Z</time>
      </trkpt>
      <trkpt lat="36.756290" lon="-119.180470">
        <ele>502.683</ele>
        <time>2018-12-29T05:32:55Z</time>
      </trkpt>
      <trkpt lat="36.756330" lon="-119.180340">
        <ele>506.288</ele>
        <time>2018-12-29T05:33:15Z</time>
      </trkpt>
      <trkpt lat="36.756360" lon="-119.180210">
        <ele>509.158</ele>
        <time>2018-12-29T05:33:35Z</time>
      </trkpt>
      <trkpt lat="36.756390" lon="-119.180070">
        <ele>509.422</ele>
        <time>2018-12-29T05:33:55Z</time>
      </trkpt>
      <trkpt lat="36.756410" lon="-119.179950">
        <ele>507.332</ele>
        <time>2018-12-29T05:34:15Z</time>
      </trkpt>
      <trkpt lat="36.756420" lon="-119.179810">
        <ele>504.968</ele>
        <time>2018-12-29T05:34:35Z</time>
      </trkpt>
      <trkpt lat="36.756440" lon="-119.179650">
        <ele>502.967</ele>
        <time>2018-12-29T05:34:55Z</time>
      </trkpt>
      <trkpt lat="36.756440" lon="-119.179510">
        <ele>502.147</ele>
        <time>2018-12-29T05:35:15Z</time>
      </trkpt>
      <trkpt lat="36.756440" lon="-119.179380">
        <ele>502.129</ele>
        <time>2018-12-29T05:35:35Z</time>
      </trkpt>
      <trkpt lat="36.756430" lon="-119.179270">
        <ele>502.121</ele>
        <time>2018-12-29T05:35:55Z</time>
      </trkpt>
      <trkpt lat="36.756420" lon="-119.179150">
        <ele>502.408</ele>
        <time>2018-12-29T05:36:15Z</time>
      </trkpt>
      <trkpt lat="36.756400" lon="-119.179010">
        <ele>503.147</ele>
        <time>2018-12-29T05:36:35Z</time>
      </trkpt>
      <trkpt lat="36.756380" lon="-119.178900">
        <ele>504.945</ele>
        <time>2018-12-29T05:36:55Z</time>
      </trkpt>
      <trkpt lat="36.756360" lon="-119.178800">
        <ele>506.340</ele>
        <time>2018-12-29T05:37:15Z</time>
      </trkpt>
      <trkpt lat="36.756340" lon="-119.178670">
        <ele>509.080</ele>
        <time>2018-12-29T05:37:35Z</time>
      </trkpt>
      <trkpt lat="36.756310" lon="-119.178560">
        <ele>511.014</ele>
        <time>2018-12-29T05:37:55Z</time>
      </trkpt>
      <trkpt lat="36.756270" lon="-119.178420">
        <ele>514.184</ele>
        <time>2018-12-29T05:38:15Z</time>
      </trkpt>
      <trkpt lat="36.756230" lon="-119.178310">
        <ele>518.720</ele>
        <time>2018-12-29T05:38:35Z</time>
      </trkpt>
      <trkpt lat="36.756190" lon="-119.178200">
        <ele>523.089</ele>
        <time>2018-12-29T05:38:55Z</time>
      </trkpt>
      <trkpt lat="36.756160" lon="-119.178110">
        <ele>523.986</ele>
        <time>2018-12-29T05:39:15Z</time>
      </trkpt>
      <trkpt lat="36.756090" lon="-119.177990">
        <ele>523.860</ele>
        <time>2018-12-29T05:39:35Z</time>
      </trkpt>
      <trkpt lat="36.756010" lon="-119.177850">
        <ele>523.226</ele>
        <time>2018-12-29T05:39:55Z</time>
      </trkpt>
      <trkpt lat="36.755930" lon="-119.177730">
        <ele>522.008</ele>
        <time>2018-12-29T05:40:15Z</time>
      </trkpt>
      <trkpt lat="36.755870" lon="-119.177640">
        <ele>521.111</ele>
        <time>2018-12-29T05:40:35Z</time>
      </trkpt>
      <trkpt lat="36.755810" lon="-119.177570">
        <ele>519.979</ele>
        <time>2018-12-29T05:40:55Z</time>
      </trkpt>
      <trkpt lat="36.755700" lon="-119.177450">
        <ele>517.694</ele>
        <time>2018-12-29T05:41:15Z</time>
      </trkpt>
      <trkpt lat="36.755560" lon="-119.177310">
        <ele>516.964</ele>
        <time>2018-12-29T05:41:35Z</time>
      </trkpt>
      <trkpt lat="36.755420" lon="-119.177190">
        <ele>517.148</ele>
        <time>2018-12-29T05:41:55Z</time>
      </trkpt>
      <trkpt lat="36.755240" lon="-119.177040">
        <ele>517.688</ele>
        <time>2018-12-29T05:42:15Z</time>
      </trkpt>
      <trkpt lat="36.754930" lon="-119.176800">
        <ele>519.824</ele>
        <time>2018-12-29T05:42:35Z</time>
      </trkpt>
      <trkpt lat="36.754700" lon="-119.176600">
        <ele>522.133</ele>
        <time>2018-12-29T05:42:55Z</time>
      </trkpt>
      <trkpt lat="36.754580" lon="-119.176500">
        <ele>523.395</ele>
        <time>2018-12-29T05:43:15Z</time>
      </trkpt>
      <trkpt lat="36.754490" lon="-119.176410">
        <ele>527.149</ele>
        <time>2018-12-29T05:43:35Z</time>
      </trkpt>
      <trkpt lat="36.754410" lon="-119.176320">
        <ele>529.523</ele>
        <time>2018-12-29T05:43:55Z</time>
      </trkpt>
      <trkpt lat="36.754320" lon="-119.176200">
        <ele>531.808</ele>
        <time>2018-12-29T05:44:15Z</time>
      </trkpt>
      <trkpt lat="36.754250" lon="-119.176110">
        <ele>533.672</ele>
        <time>2018-12-29T05:44:35Z</time>
      </trkpt>
      <trkpt lat="36.754180" lon="-119.176000">
        <ele>535.230</ele>
        <time>2018-12-29T05:44:55Z</time>
      </trkpt>
      <trkpt lat="36.754060" lon="-119.175780">
        <ele>536.135</ele>
        <time>2018-12-29T05:45:15Z</time>
      </trkpt>
      <trkpt lat="36.753990" lon="-119.175630">
        <ele>538.155</ele>
        <time>2018-12-29T05:45:35Z</time>
      </trkpt>
      <trkpt lat="36.753920" lon="-119.175470">
        <ele>543.579</ele>
        <time>2018-12-29T05:45:55Z</time>
      </trkpt>
      <trkpt lat="36.753860" lon="-119.175280">
        <ele>546.799</ele>
        <time>2018-12-29T05:46:15Z</time>
      </trkpt>
      <trkpt lat="36.753800" lon="-119.175090">
        <ele>547.695</ele>
        <time>2018-12-29T05:46:35Z</time>
      </trkpt>
      <trkpt lat="36.753770" lon="-119.174920">
        <ele>547.784</ele>
        <time>2018-12-29T05:46:55Z</time>
      </trkpt>
      <trkpt lat="36.753750" lon="-119.174800">
        <ele>547.367</ele>
        <time>2018-12-29T05:47:15Z</time>
      </trkpt>
      <trkpt lat="36.753730" lon="-119.174650">
        <ele>547.381</ele>
        <time>2018-12-29T05:47:35Z</time>
      </trkpt>
      <trkpt lat="36.753710" lon="-119.174430">
        <ele>547.119</ele>
        <time>2018-12-29T05:47:55Z</time>
      </trkpt>
      <trkpt lat="36.753710" lon="-119.174220">
        <ele>546.608</ele>
        <time>2018-12-29T05:48:15Z</time>
      </trkpt>
      <trkpt lat="36.753720" lon="-119.174040">
        <ele>545.849</ele>
        <time>2018-12-29T05:48:35Z</time>
      </trkpt>
      <trkpt lat="36.753740" lon="-119.173870">
        <ele>544.317</ele>
        <time>2018-12-29T05:48:55Z</time>
      </trkpt>
      <trkpt lat="36.753780" lon="-119.173680">
        <ele>543.052</ele>
        <time>2018-12-29T05:49:15Z</time>
      </trkpt>
      <trkpt lat="36.753840" lon="-119.173440">
        <ele>541.612</ele>
        <time>2018-12-29T05:49:35Z</time>
      </trkpt>
      <trkpt lat="36.753970" lon="-119.172990">
        <ele>543.096</ele>
        <time>2018-12-29T05:49:55Z</time>
      </trkpt>
      <trkpt lat="36.754140" lon="-119.172410">
        <ele>549.846</ele>
        <time>2018-12-29T05:50:15Z</time>
      </trkpt>
      <trkpt lat="36.754620" lon="-119.170810">
        <ele>559.062</ele>
        <time>2018-12-29T05:50:35Z</time>
      </trkpt>
      <trkpt lat="36.755960" lon="-119.166400">
        <ele>562.981</ele>
        <time>2018-12-29T05:50:55Z</time>
      </trkpt>
      <trkpt lat="36.756040" lon="-119.166100">
        <ele>561.962</ele>
        <time>2018-12-29T05:51:15Z</time>
      </trkpt>
      <trkpt lat="36.756290" lon="-119.165300">
        <ele>560.783</ele>
        <time>2018-12-29T05:51:35Z</time>
      </trkpt>
      <trkpt lat="36.756520" lon="-119.164530">
        <ele>558.811</ele>
        <time>2018-12-29T05:51:55Z</time>
      </trkpt>
      <trkpt lat="36.757030" lon="-119.162840">
        <ele>559.108</ele>
        <time>2018-12-29T05:52:15Z</time>
      </trkpt>
      <trkpt lat="36.757110" lon="-119.162550">
        <ele>561.979</ele>
        <time>2018-12-29T05:52:35Z</time>
      </trkpt>
      <trkpt lat="36.757180" lon="-119.162320">
        <ele>563.397</ele>
        <time>2018-12-29T05:52:55Z</time>
      </trkpt>
      <trkpt lat="36.757230" lon="-119.162120">
        <ele>564.312</ele>
        <time>2018-12-29T05:53:15Z</time>
      </trkpt>
      <trkpt lat="36.757270" lon="-119.161940">
        <ele>565.112</ele>
        <time>2018-12-29T05:53:35Z</time>
      </trkpt>
      <trkpt lat="36.757310" lon="-119.161730">
        <ele>565.676</ele>
        <time>2018-12-29T05:53:55Z</time>
      </trkpt>
      <trkpt lat="36.757360" lon="-119.161400">
        <ele>565.476</ele>
        <time>2018-12-29T05:54:15Z</time>
      </trkpt>
      <trkpt lat="36.757400" lon="-119.161140">
        <ele>566.042</ele>
        <time>2018-12-29T05:54:35Z</time>
      </trkpt>
      <trkpt lat="36.757440" lon="-119.160810">
        <ele>568.761</ele>
        <time>2018-12-29T05:54:55Z</time>
      </trkpt>
      <trkpt lat="36.757460" lon="-119.160500">
        <ele>571.563</ele>
        <time>2018-12-29T05:55:15Z</time>
      </trkpt>
      <trkpt lat="36.757480" lon="-119.160190">
        <ele>575.144</ele>
        <time>2018-12-29T05:55:35Z</time>
      </trkpt>
      <trkpt lat="36.757490" lon="-119.159810">
        <ele>582.018</ele>
        <time>2018-12-29T05:55:55Z</time>
      </trkpt>
      <trkpt lat="36.757480" lon="-119.159610">
        <ele>583.508</ele>
        <time>2018-12-29T05:56:15Z</time>
      </trkpt>
      <trkpt lat="36.757470" lon="-119.159380">
        <ele>584.529</ele>
        <time>2018-12-29T05:56:35Z</time>
      </trkpt>
      <trkpt lat="36.757460" lon="-119.159140">
        <ele>585.447</ele>
        <time>2018-12-29T05:56:55Z</time>
      </trkpt>
      <trkpt lat="36.757440" lon="-119.158930">
        <ele>586.192</ele>
        <time>2018-12-29T05:57:15Z</time>
      </trkpt>
      <trkpt lat="36.757420" lon="-119.158730">
        <ele>586.972</ele>
        <time>2018-12-29T05:57:35Z</time>
      </trkpt>
      <trkpt lat="36.757400" lon="-119.158550">
        <ele>589.616</ele>
        <time>2018-12-29T05:57:55Z</time>
      </trkpt>
      <trkpt lat="36.757380" lon="-119.158390">
        <ele>592.416</ele>
        <time>2018-12-29T05:58:15Z</time>
      </trkpt>
      <trkpt lat="36.757320" lon="-119.158070">
        <ele>596.042</ele>
        <time>2018-12-29T05:58:35Z</time>
      </trkpt>
      <trkpt lat="36.757260" lon="-119.157760">
        <ele>594.431</ele>
        <time>2018-12-29T05:58:55Z</time>
      </trkpt>
      <trkpt lat="36.757210" lon="-119.157520">
        <ele>592.728</ele>
        <time>2018-12-29T05:59:15Z</time>
      </trkpt>
      <trkpt lat="36.757140" lon="-119.157250">
        <ele>591.689</ele>
        <time>2018-12-29T05:59:35Z</time>
      </trkpt>
      <trkpt lat="36.757070" lon="-119.157010">
        <ele>592.217</ele>
        <time>2018-12-29T05:59:55Z</time>
      </trkpt>
      <trkpt lat="36.756980" lon="-119.156700">
        <ele>594.308</ele>
        <time>2018-12-29T06:00:15Z</time>
      </trkpt>
      <trkpt lat="36.756870" lon="-119.156400">
        <ele>594.715</ele>
        <time>2018-12-29T06:00:35Z</time>
      </trkpt>
      <trkpt lat="36.756770" lon="-119.156140">
        <ele>596.323</ele>
        <time>2018-12-29T06:00:55Z</time>
      </trkpt>
      <trkpt lat="36.756660" lon="-119.155880">
        <ele>601.528</ele>
        <time>2018-12-29T06:01:15Z</time>
      </trkpt>
      <trkpt lat="36.756580" lon="-119.155700">
        <ele>603.738</ele>
        <time>2018-12-29T06:01:35Z</time>
      </trkpt>
      <trkpt lat="36.756270" lon="-119.155020">
        <ele>609.462</ele>
        <time>2018-12-29T06:01:55Z</time>
      </trkpt>
      <trkpt lat="36.755930" lon="-119.154260">
        <ele>609.122</ele>
        <time>2018-12-29T06:02:15Z</time>
      </trkpt>
      <trkpt lat="36.755620" lon="-119.153600">
        <ele>615.098</ele>
        <time>2018-12-29T06:02:35Z</time>
      </trkpt>
      <trkpt lat="36.755460" lon="-119.153240">
        <ele>618.947</ele>
        <time>2018-12-29T06:02:55Z</time>
      </trkpt>
      <trkpt lat="36.755230" lon="-119.152740">
        <ele>622.798</ele>
        <time>2018-12-29T06:03:15Z</time>
      </trkpt>
      <trkpt lat="36.755050" lon="-119.152320">
        <ele>626.115</ele>
        <time>2018-12-29T06:03:35Z</time>
      </trkpt>
      <trkpt lat="36.754970" lon="-119.152110">
        <ele>630.226</ele>
        <time>2018-12-29T06:03:55Z</time>
      </trkpt>
      <trkpt lat="36.754910" lon="-119.151940">
        <ele>631.908</ele>
        <time>2018-12-29T06:04:15Z</time>
      </trkpt>
      <trkpt lat="36.754870" lon="-119.151790">
        <ele>633.382</ele>
        <time>2018-12-29T06:04:35Z</time>
      </trkpt>
      <trkpt lat="36.754850" lon="-119.151670">
        <ele>634.140</ele>
        <time>2018-12-29T06:04:55Z</time>
      </trkpt>
      <trkpt lat="36.754830" lon="-119.151530">
        <ele>635.065</ele>
        <time>2018-12-29T06:05:15Z</time>
      </trkpt>
      <trkpt lat="36.754800" lon="-119.151390">
        <ele>635.125</ele>
        <time>2018-12-29T06:05:35Z</time>
      </trkpt>
      <trkpt lat="36.754790" lon="-119.151220">
        <ele>635.429</ele>
        <time>2018-12-29T06:05:55Z</time>
      </trkpt>
      <trkpt lat="36.754780" lon="-119.151060">
        <ele>635.599</ele>
        <time>2018-12-29T06:06:15Z</time>
      </trkpt>
      <trkpt lat="36.754780" lon="-119.150860">
        <ele>635.255</ele>
        <time>2018-12-29T06:06:35Z</time>
      </trkpt>
      <trkpt lat="36.754790" lon="-119.150600">
        <ele>634.374</ele>
        <time>2018-12-29T06:06:55Z</time>
      </trkpt>
      <trkpt lat="36.754820" lon="-119.150330">
        <ele>633.824</ele>
        <time>2018-12-29T06:07:15Z</time>
      </trkpt>
      <trkpt lat="36.754870" lon="-119.150100">
        <ele>633.804</ele>
        <time>2018-12-29T06:07:35Z</time>
      </trkpt>
      <trkpt lat="36.754900" lon="-119.149960">
        <ele>633.514</ele>
        <time>2018-12-29T06:07:55Z</time>
      </trkpt>
      <trkpt lat="36.754940" lon="-119.149830">
        <ele>633.208</ele>
        <time>2018-12-29T06:08:15Z</time>
      </trkpt>
      <trkpt lat="36.754990" lon="-119.149690">
        <ele>633.145</ele>
        <time>2018-12-29T06:08:35Z</time>
      </trkpt>
      <trkpt lat="36.755040" lon="-119.149550">
        <ele>633.033</ele>
        <time>2018-12-29T06:08:55Z</time>
      </trkpt>
      <trkpt lat="36.755130" lon="-119.149350">
        <ele>632.678</ele>
        <time>2018-12-29T06:09:15Z</time>
      </trkpt>
      <trkpt lat="36.755230" lon="-119.149160">
        <ele>633.698</ele>
        <time>2018-12-29T06:09:35Z</time>
      </trkpt>
      <trkpt lat="36.755380" lon="-119.148910">
        <ele>633.662</ele>
        <time>2018-12-29T06:09:55Z</time>
      </trkpt>
      <trkpt lat="36.755490" lon="-119.148760">
        <ele>634.552</ele>
        <time>2018-12-29T06:10:15Z</time>
      </trkpt>
      <trkpt lat="36.755590" lon="-119.148630">
        <ele>634.828</ele>
        <time>2018-12-29T06:10:35Z</time>
      </trkpt>
      <trkpt lat="36.755750" lon="-119.148480">
        <ele>633.277</ele>
        <time>2018-12-29T06:10:55Z</time>
      </trkpt>
      <trkpt lat="36.755880" lon="-119.148370">
        <ele>633.156</ele>
        <time>2018-12-29T06:11:15Z</time>
      </trkpt>
      <trkpt lat="36.756070" lon="-119.148230">
        <ele>631.859</ele>
        <time>2018-12-29T06:11:35Z</time>
      </trkpt>
      <trkpt lat="36.756310" lon="-119.148080">
        <ele>631.614</ele>
        <time>2018-12-29T06:11:55Z</time>
      </trkpt>
      <trkpt lat="36.756490" lon="-119.147970">
        <ele>632.208</ele>
        <time>2018-12-29T06:12:15Z</time>
      </trkpt>
      <trkpt lat="36.756640" lon="-119.147870">
        <ele>632.828</ele>
        <time>2018-12-29T06:12:35Z</time>
      </trkpt>
      <trkpt lat="36.756740" lon="-119.147800">
        <ele>633.256</ele>
        <time>2018-12-29T06:12:55Z</time>
      </trkpt>
      <trkpt lat="36.756810" lon="-119.147740">
        <ele>633.191</ele>
        <time>2018-12-29T06:13:15Z</time>
      </trkpt>
      <trkpt lat="36.756900" lon="-119.147650">
        <ele>632.451</ele>
        <time>2018-12-29T06:13:35Z</time>
      </trkpt>
      <trkpt lat="36.756970" lon="-119.147560">
        <ele>631.245</ele>
        <time>2018-12-29T06:13:55Z</time>
      </trkpt>
      <trkpt lat="36.757060" lon="-119.147450">
        <ele>629.525</ele>
        <time>2018-12-29T06:14:15Z</time>
      </trkpt>
      <trkpt lat="36.757140" lon="-119.147350">
        <ele>627.561</ele>
        <time>2018-12-29T06:14:35Z</time>
      </trkpt>
      <trkpt lat="36.757190" lon="-119.147260">
        <ele>626.610</ele>
        <time>2018-12-29T06:14:55Z</time>
      </trkpt>
      <trkpt lat="36.757280" lon="-119.147120">
        <ele>625.974</ele>
        <time>2018-12-29T06:15:15Z</time>
      </trkpt>
      <trkpt lat="36.757360" lon="-119.146940">
        <ele>627.256</ele>
        <time>2018-12-29T06:15:35Z</time>
      </trkpt>
      <trkpt lat="36.757430" lon="-119.146790">
        <ele>629.721</ele>
        <time>2018-12-29T06:15:55Z</time>
      </trkpt>
      <trkpt lat="36.757480" lon="-119.146640">
        <ele>634.608</ele>
        <time>2018-12-29T06:16:15Z</time>
      </trkpt>
      <trkpt lat="36.757510" lon="-119.146530">
        <ele>638.080</ele>
        <time>2018-12-29T06:16:35Z</time>
      </trkpt>
      <trkpt lat="36.757550" lon="-119.146380">
        <ele>641.438</ele>
        <time>2018-12-29T06:16:55Z</time>
      </trkpt>
      <trkpt lat="36.757570" lon="-119.146230">
        <ele>644.243</ele>
        <time>2018-12-29T06:17:15Z</time>
      </trkpt>
      <trkpt lat="36.757590" lon="-119.146090">
        <ele>645.173</ele>
        <time>2018-12-29T06:17:35Z</time>
      </trkpt>
      <trkpt lat="36.757600" lon="-119.145950">
        <ele>645.747</ele>
        <time>2018-12-29T06:17:55Z</time>
      </trkpt>
      <trkpt lat="36.757610" lon="-119.145690">
        <ele>645.357</ele>
        <time>2018-12-29T06:18:15Z</time>
      </trkpt>
      <trkpt lat="36.757610" lon="-119.145410">
        <ele>644.793</ele>
        <time>2018-12-29T06:18:35Z</time>
      </trkpt>
      <trkpt lat="36.757620" lon="-119.145220">
        <ele>644.942</ele>
        <time>2018-12-29T06:18:55Z</time>
      </trkpt>
      <trkpt lat="36.757630" lon="-119.145040">
        <ele>647.121</ele>
        <time>2018-12-29T06:19:15Z</time>
      </trkpt>
      <trkpt lat="36.757650" lon="-119.144900">
        <ele>650.741</ele>
        <time>2018-12-29T06:19:35Z</time>
      </trkpt>
      <trkpt lat="36.757680" lon="-119.144760">
        <ele>653.705</ele>
        <time>2018-12-29T06:19:55Z</time>
      </trkpt>
      <trkpt lat="36.757710" lon="-119.144600">
        <ele>656.008</ele>
        <time>2018-12-29T06:20:15Z</time>
      </trkpt>
      <trkpt lat="36.757760" lon="-119.144440">
        <ele>657.125</ele>
        <time>2018-12-29T06:20:35Z</time>
      </trkpt>
      <trkpt lat="36.757820" lon="-119.144250">
        <ele>657.893</ele>
        <time>2018-12-29T06:20:55Z</time>
      </trkpt>
      <trkpt lat="36.757890" lon="-119.144080">
        <ele>658.118</ele>
        <time>2018-12-29T06:21:15Z</time>
      </trkpt>
      <trkpt lat="36.757950" lon="-119.143950">
        <ele>658.498</ele>
        <time>2018-12-29T06:21:35Z</time>
      </trkpt>
      <trkpt lat="36.758010" lon="-119.143820">
        <ele>658.672</ele>
        <time>2018-12-29T06:21:55Z</time>
      </trkpt>
      <trkpt lat="36.758090" lon="-119.143710">
        <ele>658.912</ele>
        <time>2018-12-29T06:22:15Z</time>
      </trkpt>
      <trkpt lat="36.758150" lon="-119.143610">
        <ele>658.648</ele>
        <time>2018-12-29T06:22:35Z</time>
      </trkpt>
      <trkpt lat="36.758260" lon="-119.143470">
        <ele>658.427</ele>
        <time>2018-12-29T06:22:55Z</time>
      </trkpt>
      <trkpt lat="36.758370" lon="-119.143340">
        <ele>658.057</ele>
        <time>2018-12-29T06:23:15Z</time>
      </trkpt>
      <trkpt lat="36.758410" lon="-119.143290">
        <ele>657.600</ele>
        <time>2018-12-29T06:23:35Z</time>
      </trkpt>
      <trkpt lat="36.758580" lon="-119.143090">
        <ele>654.520</ele>
        <time>2018-12-29T06:23:55Z</time>
      </trkpt>
      <trkpt lat="36.759370" lon="-119.142230">
        <ele>662.508</ele>
        <time>2018-12-29T06:24:15Z</time>
      </trkpt>
      <trkpt lat="36.760530" lon="-119.140960">
        <ele>675.498</ele>
        <time>2018-12-29T06:24:35Z</time>
      </trkpt>
      <trkpt lat="36.761570" lon="-119.139820">
        <ele>688.986</ele>
        <time>2018-12-29T06:24:55Z</time>
      </trkpt>
      <trkpt lat="36.762700" lon="-119.138570">
        <ele>696.871</ele>
        <time>2018-12-29T06:25:15Z</time>
      </trkpt>
      <trkpt lat="36.763090" lon="-119.138160">
        <ele>701.361</ele>
        <time>2018-12-29T06:25:35Z</time>
      </trkpt>
      <trkpt lat="36.763410" lon="-119.137790">
        <ele>704.825</ele>
        <time>2018-12-29T06:25:55Z</time>
      </trkpt>
      <trkpt lat="36.763600" lon="-119.137570">
        <ele>706.535</ele>
        <time>2018-12-29T06:26:15Z</time>
      </trkpt>
      <trkpt lat="36.763700" lon="-119.137430">
        <ele>706.851</ele>
        <time>2018-12-29T06:26:35Z</time>
      </trkpt>
      <trkpt lat="36.763810" lon="-119.137270">
        <ele>708.430</ele>
        <time>2018-12-29T06:26:55Z</time>
      </trkpt>
      <trkpt lat="36.763880" lon="-119.137130">
        <ele>708.979</ele>
        <time>2018-12-29T06:27:15Z</time>
      </trkpt>
      <trkpt lat="36.763980" lon="-119.136940">
        <ele>708.205</ele>
        <time>2018-12-29T06:27:35Z</time>
      </trkpt>
      <trkpt lat="36.764060" lon="-119.136760">
        <ele>707.425</ele>
        <time>2018-12-29T06:27:55Z</time>
      </trkpt>
      <trkpt lat="36.764130" lon="-119.136570">
        <ele>707.508</ele>
        <time>2018-12-29T06:28:15Z</time>
      </trkpt>
      <trkpt lat="36.764180" lon="-119.136400">
        <ele>708.930</ele>
        <time>2018-12-29T06:28:35Z</time>
      </trkpt>
      <trkpt lat="36.764220" lon="-119.136230">
        <ele>711.418</ele>
        <time>2018-12-29T06:28:55Z</time>
      </trkpt>
      <trkpt lat="36.764280" lon="-119.135990">
        <ele>713.723</ele>
        <time>2018-12-29T06:29:15Z</time>
      </trkpt>
      <trkpt lat="36.764370" lon="-119.135470">
        <ele>717.153</ele>
        <time>2018-12-29T06:29:35Z</time>
      </trkpt>
      <trkpt lat="36.765110" lon="-119.130980">
        <ele>743.117</ele>
        <time>2018-12-29T06:29:55Z</time>
      </trkpt>
      <trkpt lat="36.765200" lon="-119.130430">
        <ele>749.417</ele>
        <time>2018-12-29T06:30:15Z</time>
      </trkpt>
      <trkpt lat="36.765260" lon="-119.130030">
        <ele>750.123</ele>
        <time>2018-12-29T06:30:35Z</time>
      </trkpt>
      <trkpt lat="36.765290" lon="-119.129790">
        <ele>751.322</ele>
        <time>2018-12-29T06:30:55Z</time>
      </trkpt>
      <trkpt lat="36.765300" lon="-119.129600">
        <ele>751.957</ele>
        <time>2018-12-29T06:31:15Z</time>
      </trkpt>
      <trkpt lat="36.765310" lon="-119.129450">
        <ele>752.500</ele>
        <time>2018-12-29T06:31:35Z</time>
      </trkpt>
      <trkpt lat="36.765300" lon="-119.129290">
        <ele>752.320</ele>
        <time>2018-12-29T06:31:55Z</time>
      </trkpt>
      <trkpt lat="36.765290" lon="-119.129130">
        <ele>752.308</ele>
        <time>2018-12-29T06:32:15Z</time>
      </trkpt>
      <trkpt lat="36.765270" lon="-119.128980">
        <ele>752.598</ele>
        <time>2018-12-29T06:32:35Z</time>
      </trkpt>
      <trkpt lat="36.765260" lon="-119.128880">
        <ele>753.666</ele>
        <time>2018-12-29T06:32:55Z</time>
      </trkpt>
      <trkpt lat="36.765240" lon="-119.128780">
        <ele>754.991</ele>
        <time>2018-12-29T06:33:15Z</time>
      </trkpt>
      <trkpt lat="36.765210" lon="-119.128680">
        <ele>756.361</ele>
        <time>2018-12-29T06:33:35Z</time>
      </trkpt>
      <trkpt lat="36.765140" lon="-119.128450">
        <ele>760.355</ele>
        <time>2018-12-29T06:33:55Z</time>
      </trkpt>
      <trkpt lat="36.765080" lon="-119.128270">
        <ele>763.165</ele>
        <time>2018-12-29T06:34:15Z</time>
      </trkpt>
      <trkpt lat="36.765020" lon="-119.128130">
        <ele>764.531</ele>
        <time>2018-12-29T06:34:35Z</time>
      </trkpt>
      <trkpt lat="36.764930" lon="-119.127960">
        <ele>765.670</ele>
        <time>2018-12-29T06:34:55Z</time>
      </trkpt>
      <trkpt lat="36.764830" lon="-119.127780">
        <ele>765.815</ele>
        <time>2018-12-29T06:35:15Z</time>
      </trkpt>
      <trkpt lat="36.764760" lon="-119.127680">
        <ele>766.465</ele>
        <time>2018-12-29T06:35:35Z</time>
      </trkpt>
      <trkpt lat="36.764700" lon="-119.127580">
        <ele>767.311</ele>
        <time>2018-12-29T06:35:55Z</time>
      </trkpt>
      <trkpt lat="36.764560" lon="-119.127430">
        <ele>768.808</ele>
        <time>2018-12-29T06:36:15Z</time>
      </trkpt>
      <trkpt lat="36.764420" lon="-119.127290">
        <ele>771.054</ele>
        <time>2018-12-29T06:36:35Z</time>
      </trkpt>
      <trkpt lat="36.764290" lon="-119.127180">
        <ele>770.132</ele>
        <time>2018-12-29T06:36:55Z</time>
      </trkpt>
      <trkpt lat="36.764110" lon="-119.127040">
        <ele>770.587</ele>
        <time>2018-12-29T06:37:15Z</time>
      </trkpt>
      <trkpt lat="36.763970" lon="-119.126960">
        <ele>771.257</ele>
        <time>2018-12-29T06:37:35Z</time>
      </trkpt>
      <trkpt lat="36.763860" lon="-119.126900">
        <ele>771.951</ele>
        <time>2018-12-29T06:37:55Z</time>
      </trkpt>
      <trkpt lat="36.763760" lon="-119.126860">
        <ele>771.991</ele>
        <time>2018-12-29T06:38:15Z</time>
      </trkpt>
      <trkpt lat="36.763620" lon="-119.126810">
        <ele>770.947</ele>
        <time>2018-12-29T06:38:35Z</time>
      </trkpt>
      <trkpt lat="36.763530" lon="-119.126780">
        <ele>769.946</ele>
        <time>2018-12-29T06:38:55Z</time>
      </trkpt>
      <trkpt lat="36.763450" lon="-119.126760">
        <ele>769.213</ele>
        <time>2018-12-29T06:39:15Z</time>
      </trkpt>
      <trkpt lat="36.763360" lon="-119.126750">
        <ele>769.143</ele>
        <time>2018-12-29T06:39:35Z</time>
      </trkpt>
      <trkpt lat="36.763260" lon="-119.126740">
        <ele>769.007</ele>
        <time>2018-12-29T06:39:55Z</time>
      </trkpt>
      <trkpt lat="36.763170" lon="-119.126730">
        <ele>769.008</ele>
        <time>2018-12-29T06:40:15Z</time>
      </trkpt>
      <trkpt lat="36.762790" lon="-119.126740">
        <ele>770.784</ele>
        <time>2018-12-29T06:40:35Z</time>
      </trkpt>
      <trkpt lat="36.762580" lon="-119.126750">
        <ele>773.052</ele>
        <time>2018-12-29T06:40:55Z</time>
      </trkpt>
      <trkpt lat="36.762410" lon="-119.126750">
        <ele>775.217</ele>
        <time>2018-12-29T06:41:15Z</time>
      </trkpt>
      <trkpt lat="36.762310" lon="-119.126750">
        <ele>776.427</ele>
        <time>2018-12-29T06:41:35Z</time>
      </trkpt>
      <trkpt lat="36.762240" lon="-119.126750">
        <ele>777.121</ele>
        <time>2018-12-29T06:41:55Z</time>
      </trkpt>
      <trkpt lat="36.762180" lon="-119.126740">
        <ele>777.971</ele>
        <time>2018-12-29T06:42:15Z</time>
      </trkpt>
      <trkpt lat="36.762110" lon="-119.126730">
        <ele>778.747</ele>
        <time>2018-12-29T06:42:35Z</time>
      </trkpt>
      <trkpt lat="36.762050" lon="-119.126720">
        <ele>779.436</ele>
        <time>2018-12-29T06:42:55Z</time>
      </trkpt>
      <trkpt lat="36.761990" lon="-119.126710">
        <ele>780.135</ele>
        <time>2018-12-29T06:43:15Z</time>
      </trkpt>
      <trkpt lat="36.761890" lon="-119.126670">
        <ele>781.686</ele>
        <time>2018-12-29T06:43:35Z</time>
      </trkpt>
      <trkpt lat="36.761790" lon="-119.126630">
        <ele>783.214</ele>
        <time>2018-12-29T06:43:55Z</time>
      </trkpt>
      <trkpt lat="36.761700" lon="-119.126570">
        <ele>785.308</ele>
        <time>2018-12-29T06:44:15Z</time>
      </trkpt>
      <trkpt lat="36.761580" lon="-119.126500">
        <ele>788.086</ele>
        <time>2018-12-29T06:44:35Z</time>
      </trkpt>
      <trkpt lat="36.761480" lon="-119.126420">
        <ele>790.184</ele>
        <time>2018-12-29T06:44:55Z</time>
      </trkpt>
      <trkpt lat="36.761400" lon="-119.126340">
        <ele>791.379</ele>
        <time>2018-12-29T06:45:15Z</time>
      </trkpt>
      <trkpt lat="36.761300" lon="-119.126220">
        <ele>792.929</ele>
        <time>2018-12-29T06:45:35Z</time>
      </trkpt>
      <trkpt lat="36.761220" lon="-119.126090">
        <ele>793.613</ele>
        <time>2018-12-29T06:45:55Z</time>
      </trkpt>
      <trkpt lat="36.761150" lon="-119.125950">
        <ele>793.533</ele>
        <time>2018-12-29T06:46:15Z</time>
      </trkpt>
      <trkpt lat="36.761100" lon="-119.125840">
        <ele>793.339</ele>
        <time>2018-12-29T06:46:35Z</time>
      </trkpt>
      <trkpt lat="36.761040" lon="-119.125680">
        <ele>792.758</ele>
        <time>2018-12-29T06:46:55Z</time>
      </trkpt>
      <trkpt lat="36.761000" lon="-119.125520">
        <ele>792.437</ele>
        <time>2018-12-29T06:47:15Z</time>
      </trkpt>
      <trkpt lat="36.760970" lon="-119.125370">
        <ele>791.949</ele>
        <time>2018-12-29T06:47:35Z</time>
      </trkpt>
      <trkpt lat="36.760960" lon="-119.125250">
        <ele>791.813</ele>
        <time>2018-12-29T06:47:55Z</time>
      </trkpt>
      <trkpt lat="36.760940" lon="-119.125030">
        <ele>791.908</ele>
        <time>2018-12-29T06:48:15Z</time>
      </trkpt>
      <trkpt lat="36.760920" lon="-119.124790">
        <ele>792.596</ele>
        <time>2018-12-29T06:48:35Z</time>
      </trkpt>
      <trkpt lat="36.760900" lon="-119.124610">
        <ele>793.164</ele>
        <time>2018-12-29T06:48:55Z</time>
      </trkpt>
      <trkpt lat="36.760880" lon="-119.124500">
        <ele>793.639</ele>
        <time>2018-12-29T06:49:15Z</time>
      </trkpt>
      <trkpt lat="36.760850" lon="-119.124400">
        <ele>793.649</ele>
        <time>2018-12-29T06:49:35Z</time>
      </trkpt>
      <trkpt lat="36.760820" lon="-119.124320">
        <ele>793.263</ele>
        <time>2018-12-29T06:49:55Z</time>
      </trkpt>
      <trkpt lat="36.760780" lon="-119.124240">
        <ele>792.573</ele>
        <time>2018-12-29T06:50:15Z</time>
      </trkpt>
      <trkpt lat="36.760730" lon="-119.124170">
        <ele>791.219</ele>
        <time>2018-12-29T06:50:35Z</time>
      </trkpt>
      <trkpt lat="36.760670" lon="-119.124080">
        <ele>790.718</ele>
        <time>2018-12-29T06:50:55Z</time>
      </trkpt>
      <trkpt lat="36.760600" lon="-119.124010">
        <ele>792.236</ele>
        <time>2018-12-29T06:51:15Z</time>
      </trkpt>
      <trkpt lat="36.760490" lon="-119.123920">
        <ele>793.117</ele>
        <time>2018-12-29T06:51:35Z</time>
      </trkpt>
      <trkpt lat="36.760410" lon="-119.123880">
        <ele>793.518</ele>
        <time>2018-12-29T06:51:55Z</time>
      </trkpt>
      <trkpt lat="36.760320" lon="-119.123830">
        <ele>793.808</ele>
        <time>2018-12-29T06:52:15Z</time>
      </trkpt>
      <trkpt lat="36.760260" lon="-119.123820">
        <ele>794.236</ele>
        <time>2018-12-29T06:52:35Z</time>
      </trkpt>
      <trkpt lat="36.760150" lon="-119.123800">
        <ele>794.984</ele>
        <time>2018-12-29T06:52:55Z</time>
      </trkpt>
      <trkpt lat="36.760070" lon="-119.123800">
        <ele>796.519</ele>
        <time>2018-12-29T06:53:15Z</time>
      </trkpt>
      <trkpt lat="36.759920" lon="-119.123810">
        <ele>799.449</ele>
        <time>2018-12-29T06:53:35Z</time>
      </trkpt>
      <trkpt lat="36.759690" lon="-119.123850">
        <ele>801.883</ele>
        <time>2018-12-29T06:53:55Z</time>
      </trkpt>
      <trkpt lat="36.759570" lon="-119.123870">
        <ele>802.753</ele>
        <time>2018-12-29T06:54:15Z</time>
      </trkpt>
      <trkpt lat="36.759480" lon="-119.123870">
        <ele>803.389</ele>
        <time>2018-12-29T06:54:35Z</time>
      </trkpt>
      <trkpt lat="36.759380" lon="-119.123870">
        <ele>804.068</ele>
        <time>2018-12-29T06:54:55Z</time>
      </trkpt>
      <trkpt lat="36.759290" lon="-119.123860">
        <ele>804.853</ele>
        <time>2018-12-29T06:55:15Z</time>
      </trkpt>
      <trkpt lat="36.759200" lon="-119.123830">
        <ele>805.704</ele>
        <time>2018-12-29T06:55:35Z</time>
      </trkpt>
      <trkpt lat="36.759100" lon="-119.123800">
        <ele>805.814</ele>
        <time>2018-12-29T06:55:55Z</time>
      </trkpt>
      <trkpt lat="36.759030" lon="-119.123760">
        <ele>804.808</ele>
        <time>2018-12-29T06:56:15Z</time>
      </trkpt>
      <trkpt lat="36.758900" lon="-119.123670">
        <ele>807.928</ele>
        <time>2018-12-29T06:56:35Z</time>
      </trkpt>
      <trkpt lat="36.758810" lon="-119.123600">
        <ele>809.796</ele>
        <time>2018-12-29T06:56:55Z</time>
      </trkpt>
      <trkpt lat="36.758710" lon="-119.123510">
        <ele>810.291</ele>
        <time>2018-12-29T06:57:15Z</time>
      </trkpt>
      <trkpt lat="36.758650" lon="-119.123420">
        <ele>810.541</ele>
        <time>2018-12-29T06:57:35Z</time>
      </trkpt>
      <trkpt lat="36.758590" lon="-119.123330">
        <ele>810.925</ele>
        <time>2018-12-29T06:57:55Z</time>
      </trkpt>
      <trkpt lat="36.758530" lon="-119.123220">
        <ele>811.555</ele>
        <time>2018-12-29T06:58:15Z</time>
      </trkpt>
      <trkpt lat="36.758480" lon="-119.123090">
        <ele>812.871</ele>
        <time>2018-12-29T06:58:35Z</time>
      </trkpt>
      <trkpt lat="36.758430" lon="-119.122950">
        <ele>813.670</ele>
        <time>2018-12-29T06:58:55Z</time>
      </trkpt>
      <trkpt lat="36.758400" lon="-119.122830">
        <ele>814.135</ele>
        <time>2018-12-29T06:59:15Z</time>
      </trkpt>
      <trkpt lat="36.758380" lon="-119.122710">
        <ele>814.786</ele>
        <time>2018-12-29T06:59:35Z</time>
      </trkpt>
      <trkpt lat="36.758380" lon="-119.122600">
        <ele>815.814</ele>
        <time>2018-12-29T06:59:55Z</time>
      </trkpt>
      <trkpt lat="36.758370" lon="-119.122440">
        <ele>817.508</ele>
        <time>2018-12-29T07:00:15Z</time>
      </trkpt>
      <trkpt lat="36.758360" lon="-119.122120">
        <ele>821.286</ele>
        <time>2018-12-29T07:00:35Z</time>
      </trkpt>
      <trkpt lat="36.758360" lon="-119.121830">
        <ele>825.324</ele>
        <time>2018-12-29T07:00:55Z</time>
      </trkpt>
      <trkpt lat="36.758370" lon="-119.121620">
        <ele>826.329</ele>
        <time>2018-12-29T07:01:15Z</time>
      </trkpt>
      <trkpt lat="36.758390" lon="-119.121400">
        <ele>826.449</ele>
        <time>2018-12-29T07:01:35Z</time>
      </trkpt>
      <trkpt lat="36.758420" lon="-119.121200">
        <ele>826.393</ele>
        <time>2018-12-29T07:01:55Z</time>
      </trkpt>
      <trkpt lat="36.758480" lon="-119.120930">
        <ele>827.283</ele>
        <time>2018-12-29T07:02:15Z</time>
      </trkpt>
      <trkpt lat="36.758560" lon="-119.120660">
        <ele>829.829</ele>
        <time>2018-12-29T07:02:35Z</time>
      </trkpt>
      <trkpt lat="36.758630" lon="-119.120460">
        <ele>831.928</ele>
        <time>2018-12-29T07:02:55Z</time>
      </trkpt>
      <trkpt lat="36.758720" lon="-119.120240">
        <ele>835.048</ele>
        <time>2018-12-29T07:03:15Z</time>
      </trkpt>
      <trkpt lat="36.758820" lon="-119.120000">
        <ele>838.161</ele>
        <time>2018-12-29T07:03:35Z</time>
      </trkpt>
      <trkpt lat="36.758930" lon="-119.119730">
        <ele>839.717</ele>
        <time>2018-12-29T07:03:55Z</time>
      </trkpt>
      <trkpt lat="36.759020" lon="-119.119440">
        <ele>839.308</ele>
        <time>2018-12-29T07:04:15Z</time>
      </trkpt>
      <trkpt lat="36.759090" lon="-119.119210">
        <ele>841.287</ele>
        <time>2018-12-29T07:04:35Z</time>
      </trkpt>
      <trkpt lat="36.759130" lon="-119.118980">
        <ele>840.745</ele>
        <time>2018-12-29T07:04:55Z</time>
      </trkpt>
      <trkpt lat="36.759190" lon="-119.118720">
        <ele>841.260</ele>
        <time>2018-12-29T07:05:15Z</time>
      </trkpt>
      <trkpt lat="36.759220" lon="-119.118490">
        <ele>841.590</ele>
        <time>2018-12-29T07:05:35Z</time>
      </trkpt>
      <trkpt lat="36.759250" lon="-119.118170">
        <ele>841.684</ele>
        <time>2018-12-29T07:05:55Z</time>
      </trkpt>
      <trkpt lat="36.759270" lon="-119.117860">
        <ele>842.394</ele>
        <time>2018-12-29T07:06:15Z</time>
      </trkpt>
      <trkpt lat="36.759270" lon="-119.117460">
        <ele>845.590</ele>
        <time>2018-12-29T07:06:35Z</time>
      </trkpt>
      <trkpt lat="36.759280" lon="-119.117120">
        <ele>846.139</ele>
        <time>2018-12-29T07:06:55Z</time>
      </trkpt>
      <trkpt lat="36.759300" lon="-119.116820">
        <ele>846.768</ele>
        <time>2018-12-29T07:07:15Z</time>
      </trkpt>
      <trkpt lat="36.759320" lon="-119.116640">
        <ele>847.342</ele>
        <time>2018-12-29T07:07:35Z</time>
      </trkpt>
      <trkpt lat="36.759350" lon="-119.116470">
        <ele>848.226</ele>
        <time>2018-12-29T07:07:55Z</time>
      </trkpt>
      <trkpt lat="36.759410" lon="-119.116140">
        <ele>849.108</ele>
        <time>2018-12-29T07:08:15Z</time>
      </trkpt>
      <trkpt lat="36.759470" lon="-119.115860">
        <ele>849.839</ele>
        <time>2018-12-29T07:08:35Z</time>
      </trkpt>
      <trkpt lat="36.759550" lon="-119.115550">
        <ele>850.767</ele>
        <time>2018-12-29T07:08:55Z</time>
      </trkpt>
      <trkpt lat="36.759620" lon="-119.115310">
        <ele>851.952</ele>
        <time>2018-12-29T07:09:15Z</time>
      </trkpt>
      <trkpt lat="36.759700" lon="-119.115100">
        <ele>853.822</ele>
        <time>2018-12-29T07:09:35Z</time>
      </trkpt>
      <trkpt lat="36.759780" lon="-119.114910">
        <ele>856.386</ele>
        <time>2018-12-29T07:09:55Z</time>
      </trkpt>
      <trkpt lat="36.759900" lon="-119.114650">
        <ele>858.196</ele>
        <time>2018-12-29T07:10:15Z</time>
      </trkpt>
      <trkpt lat="36.760040" lon="-119.114390">
        <ele>859.072</ele>
        <time>2018-12-29T07:10:35Z</time>
      </trkpt>
      <trkpt lat="36.760150" lon="-119.114190">
        <ele>859.631</ele>
        <time>2018-12-29T07:10:55Z</time>
      </trkpt>
      <trkpt lat="36.760240" lon="-119.114040">
        <ele>860.766</ele>
        <time>2018-12-29T07:11:15Z</time>
      </trkpt>
      <trkpt lat="36.760370" lon="-119.113840">
        <ele>865.129</ele>
        <time>2018-12-29T07:11:35Z</time>
      </trkpt>
      <trkpt lat="36.760470" lon="-119.113680">
        <ele>869.021</ele>
        <time>2018-12-29T07:11:55Z</time>
      </trkpt>
      <trkpt lat="36.760560" lon="-119.113520">
        <ele>870.908</ele>
        <time>2018-12-29T07:12:15Z</time>
      </trkpt>
      <trkpt lat="36.760660" lon="-119.113300">
        <ele>872.849</ele>
        <time>2018-12-29T07:12:35Z</time>
      </trkpt>
      <trkpt lat="36.760740" lon="-119.113110">
        <ele>874.767</ele>
        <time>2018-12-29T07:12:55Z</time>
      </trkpt>
      <trkpt lat="36.760800" lon="-119.112920">
        <ele>876.072</ele>
        <time>2018-12-29T07:13:15Z</time>
      </trkpt>
      <trkpt lat="36.760850" lon="-119.112770">
        <ele>877.822</ele>
        <time>2018-12-29T07:13:35Z</time>
      </trkpt>
      <trkpt lat="36.760890" lon="-119.112610">
        <ele>879.626</ele>
        <time>2018-12-29T07:13:55Z</time>
      </trkpt>
      <trkpt lat="36.760930" lon="-119.112460">
        <ele>881.896</ele>
        <time>2018-12-29T07:14:15Z</time>
      </trkpt>
      <trkpt lat="36.760950" lon="-119.112320">
        <ele>883.532</ele>
        <time>2018-12-29T07:14:35Z</time>
      </trkpt>
      <trkpt lat="36.760960" lon="-119.112200">
        <ele>885.391</ele>
        <time>2018-12-29T07:14:55Z</time>
      </trkpt>
      <trkpt lat="36.760970" lon="-119.112070">
        <ele>887.025</ele>
        <time>2018-12-29T07:15:15Z</time>
      </trkpt>
      <trkpt lat="36.760980" lon="-119.111820">
        <ele>888.026</ele>
        <time>2018-12-29T07:15:35Z</time>
      </trkpt>
      <trkpt lat="36.760970" lon="-119.111600">
        <ele>887.108</ele>
        <time>2018-12-29T07:15:55Z</time>
      </trkpt>
      <trkpt lat="36.760950" lon="-119.111220">
        <ele>886.908</ele>
        <time>2018-12-29T07:16:15Z</time>
      </trkpt>
      <trkpt lat="36.760790" lon="-119.108970">
        <ele>896.995</ele>
        <time>2018-12-29T07:16:35Z</time>
      </trkpt>
      <trkpt lat="36.760760" lon="-119.108680">
        <ele>897.693</ele>
        <time>2018-12-29T07:16:55Z</time>
      </trkpt>
      <trkpt lat="36.760730" lon="-119.108470">
        <ele>897.798</ele>
        <time>2018-12-29T07:17:15Z</time>
      </trkpt>
      <trkpt lat="36.760700" lon="-119.108310">
        <ele>897.578</ele>
        <time>2018-12-29T07:17:35Z</time>
      </trkpt>
      <trkpt lat="36.760660" lon="-119.108130">
        <ele>897.272</ele>
        <time>2018-12-29T07:17:55Z</time>
      </trkpt>
      <trkpt lat="36.760630" lon="-119.107980">
        <ele>897.212</ele>
        <time>2018-12-29T07:18:15Z</time>
      </trkpt>
      <trkpt lat="36.760570" lon="-119.107780">
        <ele>896.938</ele>
        <time>2018-12-29T07:18:35Z</time>
      </trkpt>
      <trkpt lat="36.760530" lon="-119.107640">
        <ele>897.197</ele>
        <time>2018-12-29T07:18:55Z</time>
      </trkpt>
      <trkpt lat="36.760460" lon="-119.107450">
        <ele>897.256</ele>
        <time>2018-12-29T07:19:15Z</time>
      </trkpt>
      <trkpt lat="36.760350" lon="-119.107170">
        <ele>897.159</ele>
        <time>2018-12-29T07:19:35Z</time>
      </trkpt>
      <trkpt lat="36.760280" lon="-119.107010">
        <ele>896.614</ele>
        <time>2018-12-29T07:19:55Z</time>
      </trkpt>
      <trkpt lat="36.760220" lon="-119.106870">
        <ele>896.208</ele>
        <time>2018-12-29T07:20:15Z</time>
      </trkpt>
      <trkpt lat="36.760140" lon="-119.106740">
        <ele>895.968</ele>
        <time>2018-12-29T07:20:35Z</time>
      </trkpt>
      <trkpt lat="36.760070" lon="-119.106610">
        <ele>897.356</ele>
        <time>2018-12-29T07:20:55Z</time>
      </trkpt>
      <trkpt lat="36.759980" lon="-119.106490">
        <ele>898.491</ele>
        <time>2018-12-29T07:21:15Z</time>
      </trkpt>
      <trkpt lat="36.759830" lon="-119.106270">
        <ele>900.351</ele>
        <time>2018-12-29T07:21:35Z</time>
      </trkpt>
      <trkpt lat="36.759650" lon="-119.105980">
        <ele>900.615</ele>
        <time>2018-12-29T07:21:55Z</time>
      </trkpt>
      <trkpt lat="36.759240" lon="-119.105400">
        <ele>904.225</ele>
        <time>2018-12-29T07:22:15Z</time>
      </trkpt>
      <trkpt lat="36.758950" lon="-119.105000">
        <ele>911.861</ele>
        <time>2018-12-29T07:22:35Z</time>
      </trkpt>
      <trkpt lat="36.758710" lon="-119.104660">
        <ele>912.720</ele>
        <time>2018-12-29T07:22:55Z</time>
      </trkpt>
      <trkpt lat="36.758600" lon="-119.104480">
        <ele>913.999</ele>
        <time>2018-12-29T07:23:15Z</time>
      </trkpt>
      <trkpt lat="36.758530" lon="-119.104340">
        <ele>913.907</ele>
        <time>2018-12-29T07:23:35Z</time>
      </trkpt>
      <trkpt lat="36.758480" lon="-119.104230">
        <ele>912.927</ele>
        <time>2018-12-29T07:23:55Z</time>
      </trkpt>
      <trkpt lat="36.758440" lon="-119.104110">
        <ele>913.208</ele>
        <time>2018-12-29T07:24:15Z</time>
      </trkpt>
      <trkpt lat="36.758390" lon="-119.103960">
        <ele>913.852</ele>
        <time>2018-12-29T07:24:35Z</time>
      </trkpt>
      <trkpt lat="36.758360" lon="-119.103820">
        <ele>914.970</ele>
        <time>2018-12-29T07:24:55Z</time>
      </trkpt>
      <trkpt lat="36.758340" lon="-119.103680">
        <ele>916.685</ele>
        <time>2018-12-29T07:25:15Z</time>
      </trkpt>
      <trkpt lat="36.758330" lon="-119.103560">
        <ele>918.735</ele>
        <time>2018-12-29T07:25:35Z</time>
      </trkpt>
      <trkpt lat="36.758330" lon="-119.103430">
        <ele>920.989</ele>
        <time>2018-12-29T07:25:55Z</time>
      </trkpt>
      <trkpt lat="36.758350" lon="-119.103290">
        <ele>923.069</ele>
        <time>2018-12-29T07:26:15Z</time>
      </trkpt>
      <trkpt lat="36.758370" lon="-119.103110">
        <ele>925.035</ele>
        <time>2018-12-29T07:26:35Z</time>
      </trkpt>
      <trkpt lat="36.758400" lon="-119.102910">
        <ele>926.874</ele>
        <time>2018-12-29T07:26:55Z</time>
      </trkpt>
      <trkpt lat="36.758430" lon="-119.102760">
        <ele>930.084</ele>
        <time>2018-12-29T07:27:15Z</time>
      </trkpt>
      <trkpt lat="36.758440" lon="-119.102630">
        <ele>932.207</ele>
        <time>2018-12-29T07:27:35Z</time>
      </trkpt>
      <trkpt lat="36.758440" lon="-119.102500">
        <ele>933.817</ele>
        <time>2018-12-29T07:27:55Z</time>
      </trkpt>
      <trkpt lat="36.758430" lon="-119.102410">
        <ele>934.408</ele>
        <time>2018-12-29T07:28:15Z</time>
      </trkpt>
      <trkpt lat="36.758420" lon="-119.102360">
        <ele>934.551</ele>
        <time>2018-12-29T07:28:35Z</time>
      </trkpt>
      <trkpt lat="36.758400" lon="-119.102280">
        <ele>935.549</ele>
        <time>2018-12-29T07:28:55Z</time>
      </trkpt>
      <trkpt lat="36.758370" lon="-119.102170">
        <ele>936.794</ele>
        <time>2018-12-29T07:29:15Z</time>
      </trkpt>
      <trkpt lat="36.758340" lon="-119.102080">
        <ele>937.334</ele>
        <time>2018-12-29T07:29:35Z</time>
      </trkpt>
      <trkpt lat="36.758300" lon="-119.102000">
        <ele>936.938</ele>
        <time>2018-12-29T07:29:55Z</time>
      </trkpt>
      <trkpt lat="36.758250" lon="-119.101900">
        <ele>936.218</ele>
        <time>2018-12-29T07:30:15Z</time>
      </trkpt>
      <trkpt lat="36.758200" lon="-119.101820">
        <ele>935.024</ele>
        <time>2018-12-29T07:30:35Z</time>
      </trkpt>
      <trkpt lat="36.758140" lon="-119.101760">
        <ele>935.183</ele>
        <time>2018-12-29T07:30:55Z</time>
      </trkpt>
      <trkpt lat="36.758090" lon="-119.101710">
        <ele>935.385</ele>
        <time>2018-12-29T07:31:15Z</time>
      </trkpt>
      <trkpt lat="36.757980" lon="-119.101600">
        <ele>935.889</ele>
        <time>2018-12-29T07:31:35Z</time>
      </trkpt>
      <trkpt lat="36.757850" lon="-119.101470">
        <ele>936.517</ele>
        <time>2018-12-29T07:31:55Z</time>
      </trkpt>
      <trkpt lat="36.757770" lon="-119.101380">
        <ele>936.908</ele>
        <time>2018-12-29T07:32:15Z</time>
      </trkpt>
      <trkpt lat="36.757690" lon="-119.101280">
        <ele>936.741</ele>
        <time>2018-12-29T07:32:35Z</time>
      </trkpt>
      <trkpt lat="36.757610" lon="-119.101170">
        <ele>936.589</ele>
        <time>2018-12-29T07:32:55Z</time>
      </trkpt>
      <trkpt lat="36.757550" lon="-119.101050">
        <ele>937.194</ele>
        <time>2018-12-29T07:33:15Z</time>
      </trkpt>
      <trkpt lat="36.757490" lon="-119.100930">
        <ele>937.194</ele>
        <time>2018-12-29T07:33:35Z</time>
      </trkpt>
      <trkpt lat="36.757450" lon="-119.100810">
        <ele>937.468</ele>
        <time>2018-12-29T07:33:55Z</time>
      </trkpt>
      <trkpt lat="36.757430" lon="-119.100710">
        <ele>938.028</ele>
        <time>2018-12-29T07:34:15Z</time>
      </trkpt>
      <trkpt lat="36.757390" lon="-119.100580">
        <ele>937.154</ele>
        <time>2018-12-29T07:34:35Z</time>
      </trkpt>
      <trkpt lat="36.757360" lon="-119.100390">
        <ele>936.993</ele>
        <time>2018-12-29T07:34:55Z</time>
      </trkpt>
      <trkpt lat="36.757320" lon="-119.100110">
        <ele>938.836</ele>
        <time>2018-12-29T07:35:15Z</time>
      </trkpt>
      <trkpt lat="36.757270" lon="-119.099770">
        <ele>939.517</ele>
        <time>2018-12-29T07:35:35Z</time>
      </trkpt>
      <trkpt lat="36.757240" lon="-119.099530">
        <ele>940.318</ele>
        <time>2018-12-29T07:35:55Z</time>
      </trkpt>
      <trkpt lat="36.757210" lon="-119.099310">
        <ele>940.208</ele>
        <time>2018-12-29T07:36:15Z</time>
      </trkpt>
      <trkpt lat="36.757180" lon="-119.099170">
        <ele>939.876</ele>
        <time>2018-12-29T07:36:35Z</time>
      </trkpt>
      <trkpt lat="36.757150" lon="-119.099040">
        <ele>939.424</ele>
        <time>2018-12-29T07:36:55Z</time>
      </trkpt>
      <trkpt lat="36.757120" lon="-119.098950">
        <ele>938.989</ele>
        <time>2018-12-29T07:37:15Z</time>
      </trkpt>
      <trkpt lat="36.757090" lon="-119.098880">
        <ele>938.489</ele>
        <time>2018-12-29T07:37:35Z</time>
      </trkpt>
      <trkpt lat="36.757040" lon="-119.098800">
        <ele>938.283</ele>
        <time>2018-12-29T07:37:55Z</time>
      </trkpt>
      <trkpt lat="36.757000" lon="-119.098740">
        <ele>938.563</ele>
        <time>2018-12-29T07:38:15Z</time>
      </trkpt>
      <trkpt lat="36.756970" lon="-119.098690">
        <ele>939.379</ele>
        <time>2018-12-29T07:38:35Z</time>
      </trkpt>
      <trkpt lat="36.756930" lon="-119.098640">
        <ele>939.938</ele>
        <time>2018-12-29T07:38:55Z</time>
      </trkpt>
      <trkpt lat="36.756820" lon="-119.098540">
        <ele>940.339</ele>
        <time>2018-12-29T07:39:15Z</time>
      </trkpt>
      <trkpt lat="36.756710" lon="-119.098440">
        <ele>943.901</ele>
        <time>2018-12-29T07:39:35Z</time>
      </trkpt>
      <trkpt lat="36.756630" lon="-119.098390">
        <ele>946.121</ele>
        <time>2018-12-29T07:39:55Z</time>
      </trkpt>
      <trkpt lat="36.756570" lon="-119.098330">
        <ele>947.808</ele>
        <time>2018-12-29T07:40:15Z</time>
      </trkpt>
      <trkpt lat="36.756530" lon="-119.098280">
        <ele>948.876</ele>
        <time>2018-12-29T07:40:35Z</time>
      </trkpt>
      <trkpt lat="36.756490" lon="-119.098230">
        <ele>949.364</ele>
        <time>2018-12-29T07:40:55Z</time>
      </trkpt>
      <trkpt lat="36.756450" lon="-119.098180">
        <ele>949.689</ele>
        <time>2018-12-29T07:41:15Z</time>
      </trkpt>
      <trkpt lat="36.756400" lon="-119.098080">
        <ele>950.919</ele>
        <time>2018-12-29T07:41:35Z</time>
      </trkpt>
      <trkpt lat="36.756350" lon="-119.097960">
        <ele>951.783</ele>
        <time>2018-12-29T07:41:55Z</time>
      </trkpt>
      <trkpt lat="36.756300" lon="-119.097840">
        <ele>951.613</ele>
        <time>2018-12-29T07:42:15Z</time>
      </trkpt>
      <trkpt lat="36.756250" lon="-119.097690">
        <ele>950.719</ele>
        <time>2018-12-29T07:42:35Z</time>
      </trkpt>
      <trkpt lat="36.756220" lon="-119.097600">
        <ele>950.998</ele>
        <time>2018-12-29T07:42:55Z</time>
      </trkpt>
      <trkpt lat="36.756190" lon="-119.097530">
        <ele>951.063</ele>
        <time>2018-12-29T07:43:15Z</time>
      </trkpt>
      <trkpt lat="36.756160" lon="-119.097460">
        <ele>951.244</ele>
        <time>2018-12-29T07:43:35Z</time>
      </trkpt>
      <trkpt lat="36.756120" lon="-119.097370">
        <ele>951.318</ele>
        <time>2018-12-29T07:43:55Z</time>
      </trkpt>
      <trkpt lat="36.756070" lon="-119.097300">
        <ele>951.208</ele>
        <time>2018-12-29T07:44:15Z</time>
      </trkpt>
      <trkpt lat="36.756030" lon="-119.097240">
        <ele>951.369</ele>
        <time>2018-12-29T07:44:35Z</time>
      </trkpt>
      <trkpt lat="36.755960" lon="-119.097180">
        <ele>951.267</ele>
        <time>2018-12-29T07:44:55Z</time>
      </trkpt>
      <trkpt lat="36.755910" lon="-119.097130">
        <ele>952.212</ele>
        <time>2018-12-29T07:45:15Z</time>
      </trkpt>
      <trkpt lat="36.755850" lon="-119.097090">
        <ele>952.932</ele>
        <time>2018-12-29T07:45:35Z</time>
      </trkpt>
      <trkpt lat="36.755810" lon="-119.097070">
        <ele>953.566</ele>
        <time>2018-12-29T07:45:55Z</time>
      </trkpt>
      <trkpt lat="36.755760" lon="-119.097050">
        <ele>954.446</ele>
        <time>2018-12-29T07:46:15Z</time>
      </trkpt>
      <trkpt lat="36.755710" lon="-119.097030">
        <ele>955.442</ele>
        <time>2018-12-29T07:46:35Z</time>
      </trkpt>
      <trkpt lat="36.755670" lon="-119.097020">
        <ele>956.121</ele>
        <time>2018-12-29T07:46:55Z</time>
      </trkpt>
      <trkpt lat="36.755610" lon="-119.097010">
        <ele>957.269</ele>
        <time>2018-12-29T07:47:15Z</time>
      </trkpt>
      <trkpt lat="36.755520" lon="-119.096990">
        <ele>959.004</ele>
        <time>2018-12-29T07:47:35Z</time>
      </trkpt>
      <trkpt lat="36.755430" lon="-119.096970">
        <ele>960.624</ele>
        <time>2018-12-29T07:47:55Z</time>
      </trkpt>
      <trkpt lat="36.755340" lon="-119.096950">
        <ele>960.508</ele>
        <time>2018-12-29T07:48:15Z</time>
      </trkpt>
      <trkpt lat="36.755250" lon="-119.096920">
        <ele>960.579</ele>
        <time>2018-12-29T07:48:35Z</time>
      </trkpt>
      <trkpt lat="36.755170" lon="-119.096890">
        <ele>960.467</ele>
        <time>2018-12-29T07:48:55Z</time>
      </trkpt>
      <trkpt lat="36.755070" lon="-119.096830">
        <ele>960.472</ele>
        <time>2018-12-29T07:49:15Z</time>
      </trkpt>
      <trkpt lat="36.754990" lon="-119.096780">
        <ele>960.762</ele>
        <time>2018-12-29T07:49:35Z</time>
      </trkpt>
      <trkpt lat="36.754920" lon="-119.096710">
        <ele>962.016</ele>
        <time>2018-12-29T07:49:55Z</time>
      </trkpt>
      <trkpt lat="36.754860" lon="-119.096650">
        <ele>962.446</ele>
        <time>2018-12-29T07:50:15Z</time>
      </trkpt>
      <trkpt lat="36.754780" lon="-119.096550">
        <ele>963.282</ele>
        <time>2018-12-29T07:50:35Z</time>
      </trkpt>
      <trkpt lat="36.754700" lon="-119.096440">
        <ele>964.171</ele>
        <time>2018-12-29T07:50:55Z</time>
      </trkpt>
      <trkpt lat="36.754570" lon="-119.096210">
        <ele>965.429</ele>
        <time>2018-12-29T07:51:15Z</time>
      </trkpt>
      <trkpt lat="36.754510" lon="-119.096120">
        <ele>968.600</ele>
        <time>2018-12-29T07:51:35Z</time>
      </trkpt>
      <trkpt lat="36.754430" lon="-119.096020">
        <ele>971.220</ele>
        <time>2018-12-29T07:51:55Z</time>
      </trkpt>
      <trkpt lat="36.754340" lon="-119.095920">
        <ele>971.908</ele>
        <time>2018-12-29T07:52:15Z</time>
      </trkpt>
      <trkpt lat="36.754280" lon="-119.095850">
        <ele>972.135</ele>
        <time>2018-12-29T07:52:35Z</time>
      </trkpt>
      <trkpt lat="36.754200" lon="-119.095790">
        <ele>972.533</ele>
        <time>2018-12-29T07:52:55Z</time>
      </trkpt>
      <trkpt lat="36.754120" lon="-119.095730">
        <ele>973.218</ele>
        <time>2018-12-29T07:53:15Z</time>
      </trkpt>
      <trkpt lat="36.754010" lon="-119.095680">
        <ele>973.678</ele>
        <time>2018-12-29T07:53:35Z</time>
      </trkpt>
      <trkpt lat="36.753920" lon="-119.095650">
        <ele>973.442</ele>
        <time>2018-12-29T07:53:55Z</time>
      </trkpt>
      <trkpt lat="36.753820" lon="-119.095620">
        <ele>972.952</ele>
        <time>2018-12-29T07:54:15Z</time>
      </trkpt>
      <trkpt lat="36.753710" lon="-119.095590">
        <ele>972.588</ele>
        <time>2018-12-29T07:54:35Z</time>
      </trkpt>
      <trkpt lat="36.753470" lon="-119.095550">
        <ele>972.337</ele>
        <time>2018-12-29T07:54:55Z</time>
      </trkpt>
      <trkpt lat="36.753380" lon="-119.095530">
        <ele>972.076</ele>
        <time>2018-12-29T07:55:15Z</time>
      </trkpt>
      <trkpt lat="36.753260" lon="-119.095490">
        <ele>972.090</ele>
        <time>2018-12-29T07:55:35Z</time>
      </trkpt>
      <trkpt lat="36.753170" lon="-119.095440">
        <ele>972.419</ele>
        <time>2018-12-29T07:55:55Z</time>
      </trkpt>
      <trkpt lat="36.753080" lon="-119.095390">
        <ele>972.508</ele>
        <time>2018-12-29T07:56:15Z</time>
      </trkpt>
      <trkpt lat="36.753000" lon="-119.095320">
        <ele>973.060</ele>
        <time>2018-12-29T07:56:35Z</time>
      </trkpt>
      <trkpt lat="36.752920" lon="-119.095250">
        <ele>973.228</ele>
        <time>2018-12-29T07:56:55Z</time>
      </trkpt>
      <trkpt lat="36.752840" lon="-119.095140">
        <ele>975.943</ele>
        <time>2018-12-29T07:57:15Z</time>
      </trkpt>
      <trkpt lat="36.752780" lon="-119.095060">
        <ele>978.763</ele>
        <time>2018-12-29T07:57:35Z</time>
      </trkpt>
      <trkpt lat="36.752710" lon="-119.094970">
        <ele>981.037</ele>
        <time>2018-12-29T07:57:55Z</time>
      </trkpt>
      <trkpt lat="36.752610" lon="-119.094770">
        <ele>984.097</ele>
        <time>2018-12-29T07:58:15Z</time>
      </trkpt>
      <trkpt lat="36.752510" lon="-119.094580">
        <ele>985.913</ele>
        <time>2018-12-29T07:58:35Z</time>
      </trkpt>
      <trkpt lat="36.752440" lon="-119.094450">
        <ele>987.082</ele>
        <time>2018-12-29T07:58:55Z</time>
      </trkpt>
      <trkpt lat="36.752370" lon="-119.094360">
        <ele>987.163</ele>
        <time>2018-12-29T07:59:15Z</time>
      </trkpt>
      <trkpt lat="36.752300" lon="-119.094270">
        <ele>987.744</ele>
        <time>2018-12-29T07:59:35Z</time>
      </trkpt>
      <trkpt lat="36.752250" lon="-119.094210">
        <ele>988.418</ele>
        <time>2018-12-29T07:59:55Z</time>
      </trkpt>
      <trkpt lat="36.752210" lon="-119.094180">
        <ele>988.608</ele>
        <time>2018-12-29T08:00:15Z</time>
      </trkpt>
      <trkpt lat="36.752130" lon="-119.094120">
        <ele>989.189</ele>
        <time>2018-12-29T08:00:35Z</time>
      </trkpt>
      <trkpt lat="36.752050" lon="-119.094060">
        <ele>989.837</ele>
        <time>2018-12-29T08:00:55Z</time>
      </trkpt>
      <trkpt lat="36.751870" lon="-119.093960">
        <ele>990.162</ele>
        <time>2018-12-29T08:01:15Z</time>
      </trkpt>
      <trkpt lat="36.751780" lon="-119.093900">
        <ele>990.292</ele>
        <time>2018-12-29T08:01:35Z</time>
      </trkpt>
      <trkpt lat="36.751690" lon="-119.093840">
        <ele>989.776</ele>
        <time>2018-12-29T08:01:55Z</time>
      </trkpt>
      <trkpt lat="36.751620" lon="-119.093780">
        <ele>989.566</ele>
        <time>2018-12-29T08:02:15Z</time>
      </trkpt>
      <trkpt lat="36.751540" lon="-119.093700">
        <ele>989.542</ele>
        <time>2018-12-29T08:02:35Z</time>
      </trkpt>
      <trkpt lat="36.751490" lon="-119.093640">
        <ele>989.751</ele>
        <time>2018-12-29T08:02:55Z</time>
      </trkpt>
      <trkpt lat="36.751430" lon="-119.093570">
        <ele>990.348</ele>
        <time>2018-12-29T08:03:15Z</time>
      </trkpt>
      <trkpt lat="36.751380" lon="-119.093490">
        <ele>991.661</ele>
        <time>2018-12-29T08:03:35Z</time>
      </trkpt>
      <trkpt lat="36.751310" lon="-119.093380">
        <ele>993.417</ele>
        <time>2018-12-29T08:03:55Z</time>
      </trkpt>
      <trkpt lat="36.751240" lon="-119.093240">
        <ele>995.508</ele>
        <time>2018-12-29T08:04:15Z</time>
      </trkpt>
      <trkpt lat="36.751180" lon="-119.093080">
        <ele>998.167</ele>
        <time>2018-12-29T08:04:35Z</time>
      </trkpt>
      <trkpt lat="36.751110" lon="-119.092910">
        <ele>1000.435</ele>
        <time>2018-12-29T08:04:55Z</time>
      </trkpt>
      <trkpt lat="36.751030" lon="-119.092760">
        <ele>1001.390</ele>
        <time>2018-12-29T08:05:15Z</time>
      </trkpt>
      <trkpt lat="36.750970" lon="-119.092660">
        <ele>1001.230</ele>
        <time>2018-12-29T08:05:35Z</time>
      </trkpt>
      <trkpt lat="36.750890" lon="-119.092560">
        <ele>1001.224</ele>
        <time>2018-12-29T08:05:55Z</time>
      </trkpt>
      <trkpt lat="36.750810" lon="-119.092490">
        <ele>1000.674</ele>
        <time>2018-12-29T08:06:15Z</time>
      </trkpt>
      <trkpt lat="36.750740" lon="-119.092440">
        <ele>999.970</ele>
        <time>2018-12-29T08:06:35Z</time>
      </trkpt>
      <trkpt lat="36.750650" lon="-119.092380">
        <ele>999.389</ele>
        <time>2018-12-29T08:06:55Z</time>
      </trkpt>
      <trkpt lat="36.750560" lon="-119.092340">
        <ele>998.682</ele>
        <time>2018-12-29T08:07:15Z</time>
      </trkpt>
      <trkpt lat="36.750430" lon="-119.092290">
        <ele>997.343</ele>
        <time>2018-12-29T08:07:35Z</time>
      </trkpt>
      <trkpt lat="36.750260" lon="-119.092240">
        <ele>994.517</ele>
        <time>2018-12-29T08:07:55Z</time>
      </trkpt>
      <trkpt lat="36.750150" lon="-119.092210">
        <ele>992.308</ele>
        <time>2018-12-29T08:08:15Z</time>
      </trkpt>
      <trkpt lat="36.750070" lon="-119.092180">
        <ele>991.771</ele>
        <time>2018-12-29T08:08:35Z</time>
      </trkpt>
      <trkpt lat="36.749980" lon="-119.092140">
        <ele>991.379</ele>
        <time>2018-12-29T08:08:55Z</time>
      </trkpt>
      <trkpt lat="36.749900" lon="-119.092100">
        <ele>991.074</ele>
        <time>2018-12-29T08:09:15Z</time>
      </trkpt>
      <trkpt lat="36.749830" lon="-119.092060">
        <ele>991.524</ele>
        <time>2018-12-29T08:09:35Z</time>
      </trkpt>
      <trkpt lat="36.749740" lon="-119.091990">
        <ele>993.628</ele>
        <time>2018-12-29T08:09:55Z</time>
      </trkpt>
      <trkpt lat="36.749670" lon="-119.091930">
        <ele>995.478</ele>
        <time>2018-12-29T08:10:15Z</time>
      </trkpt>
      <trkpt lat="36.749580" lon="-119.091830">
        <ele>998.144</ele>
        <time>2018-12-29T08:10:35Z</time>
      </trkpt>
      <trkpt lat="36.749470" lon="-119.091680">
        <ele>1001.753</ele>
        <time>2018-12-29T08:10:55Z</time>
      </trkpt>
      <trkpt lat="36.749330" lon="-119.091500">
        <ele>1006.237</ele>
        <time>2018-12-29T08:11:15Z</time>
      </trkpt>
      <trkpt lat="36.749170" lon="-119.091260">
        <ele>1009.949</ele>
        <time>2018-12-29T08:11:35Z</time>
      </trkpt>
      <trkpt lat="36.748920" lon="-119.090880">
        <ele>1014.313</ele>
        <time>2018-12-29T08:11:55Z</time>
      </trkpt>
      <trkpt lat="36.748730" lon="-119.090600">
        <ele>1015.708</ele>
        <time>2018-12-29T08:12:15Z</time>
      </trkpt>
      <trkpt lat="36.748640" lon="-119.090420">
        <ele>1016.846</ele>
        <time>2018-12-29T08:12:35Z</time>
      </trkpt>
      <trkpt lat="36.748580" lon="-119.090290">
        <ele>1016.854</ele>
        <time>2018-12-29T08:12:55Z</time>
      </trkpt>
      <trkpt lat="36.748520" lon="-119.090140">
        <ele>1016.129</ele>
        <time>2018-12-29T08:13:15Z</time>
      </trkpt>
      <trkpt lat="36.748460" lon="-119.089990">
        <ele>1014.269</ele>
        <time>2018-12-29T08:13:35Z</time>
      </trkpt>
      <trkpt lat="36.748410" lon="-119.089850">
        <ele>1013.213</ele>
        <time>2018-12-29T08:13:55Z</time>
      </trkpt>
      <trkpt lat="36.748360" lon="-119.089740">
        <ele>1012.273</ele>
        <time>2018-12-29T08:14:15Z</time>
      </trkpt>
      <trkpt lat="36.748330" lon="-119.089660">
        <ele>1011.259</ele>
        <time>2018-12-29T08:14:35Z</time>
      </trkpt>
      <trkpt lat="36.748300" lon="-119.089610">
        <ele>1010.178</ele>
        <time>2018-12-29T08:14:55Z</time>
      </trkpt>
      <trkpt lat="36.748260" lon="-119.089550">
        <ele>1009.397</ele>
        <time>2018-12-29T08:15:15Z</time>
      </trkpt>
      <trkpt lat="36.748210" lon="-119.089490">
        <ele>1008.623</ele>
        <time>2018-12-29T08:15:35Z</time>
      </trkpt>
      <trkpt lat="36.748160" lon="-119.089430">
        <ele>1008.725</ele>
        <time>2018-12-29T08:15:55Z</time>
      </trkpt>
      <trkpt lat="36.748110" lon="-119.089380">
        <ele>1009.208</ele>
        <time>2018-12-29T08:16:15Z</time>
      </trkpt>
      <trkpt lat="36.748060" lon="-119.089340">
        <ele>1009.862</ele>
        <time>2018-12-29T08:16:35Z</time>
      </trkpt>
      <trkpt lat="36.748000" lon="-119.089310">
        <ele>1010.430</ele>
        <time>2018-12-29T08:16:55Z</time>
      </trkpt>
      <trkpt lat="36.747820" lon="-119.089220">
        <ele>1012.775</ele>
        <time>2018-12-29T08:17:15Z</time>
      </trkpt>
      <trkpt lat="36.747610" lon="-119.089120">
        <ele>1013.565</ele>
        <time>2018-12-29T08:17:35Z</time>
      </trkpt>
      <trkpt lat="36.747390" lon="-119.089010">
        <ele>1012.949</ele>
        <time>2018-12-29T08:17:55Z</time>
      </trkpt>
      <trkpt lat="36.747310" lon="-119.088970">
        <ele>1013.089</ele>
        <time>2018-12-29T08:18:15Z</time>
      </trkpt>
      <trkpt lat="36.747220" lon="-119.088920">
        <ele>1013.675</ele>
        <time>2018-12-29T08:18:35Z</time>
      </trkpt>
      <trkpt lat="36.747130" lon="-119.088860">
        <ele>1014.514</ele>
        <time>2018-12-29T08:18:55Z</time>
      </trkpt>
      <trkpt lat="36.747060" lon="-119.088810">
        <ele>1015.121</ele>
        <time>2018-12-29T08:19:15Z</time>
      </trkpt>
      <trkpt lat="36.747010" lon="-119.088760">
        <ele>1015.541</ele>
        <time>2018-12-29T08:19:35Z</time>
      </trkpt>
      <trkpt lat="36.746950" lon="-119.088710">
        <ele>1015.605</ele>
        <time>2018-12-29T08:19:55Z</time>
      </trkpt>
      <trkpt lat="36.746920" lon="-119.088660">
        <ele>1016.208</ele>
        <time>2018-12-29T08:20:15Z</time>
      </trkpt>
      <trkpt lat="36.746870" lon="-119.088600">
        <ele>1016.325</ele>
        <time>2018-12-29T08:20:35Z</time>
      </trkpt>
      <trkpt lat="36.746830" lon="-119.088520">
        <ele>1016.613</ele>
        <time>2018-12-29T08:20:55Z</time>
      </trkpt>
      <trkpt lat="36.746790" lon="-119.088420">
        <ele>1016.898</ele>
        <time>2018-12-29T08:21:15Z</time>
      </trkpt>
      <trkpt lat="36.746760" lon="-119.088340">
        <ele>1016.898</ele>
        <time>2018-12-29T08:21:35Z</time>
      </trkpt>
      <trkpt lat="36.746740" lon="-119.088250">
        <ele>1017.262</ele>
        <time>2018-12-29T08:21:55Z</time>
      </trkpt>
      <trkpt lat="36.746720" lon="-119.088140">
        <ele>1018.242</ele>
        <time>2018-12-29T08:22:15Z</time>
      </trkpt>
      <trkpt lat="36.746710" lon="-119.087960">
        <ele>1021.358</ele>
        <time>2018-12-29T08:22:35Z</time>
      </trkpt>
      <trkpt lat="36.746710" lon="-119.087800">
        <ele>1023.137</ele>
        <time>2018-12-29T08:22:55Z</time>
      </trkpt>
      <trkpt lat="36.746730" lon="-119.087480">
        <ele>1025.066</ele>
        <time>2018-12-29T08:23:15Z</time>
      </trkpt>
      <trkpt lat="36.746780" lon="-119.086940">
        <ele>1027.329</ele>
        <time>2018-12-29T08:23:35Z</time>
      </trkpt>
      <trkpt lat="36.746810" lon="-119.086540">
        <ele>1028.521</ele>
        <time>2018-12-29T08:23:55Z</time>
      </trkpt>
      <trkpt lat="36.746830" lon="-119.086320">
        <ele>1028.408</ele>
        <time>2018-12-29T08:24:15Z</time>
      </trkpt>
      <trkpt lat="36.746830" lon="-119.086170">
        <ele>1028.599</ele>
        <time>2018-12-29T08:24:35Z</time>
      </trkpt>
      <trkpt lat="36.746830" lon="-119.086040">
        <ele>1029.117</ele>
        <time>2018-12-29T08:24:55Z</time>
      </trkpt>
      <trkpt lat="36.746820" lon="-119.085900">
        <ele>1029.582</ele>
        <time>2018-12-29T08:25:15Z</time>
      </trkpt>
      <trkpt lat="36.746790" lon="-119.085700">
        <ele>1029.522</ele>
        <time>2018-12-29T08:25:35Z</time>
      </trkpt>
      <trkpt lat="36.746780" lon="-119.085600">
        <ele>1031.326</ele>
        <time>2018-12-29T08:25:55Z</time>
      </trkpt>
      <trkpt lat="36.746770" lon="-119.085510">
        <ele>1032.926</ele>
        <time>2018-12-29T08:26:15Z</time>
      </trkpt>
      <trkpt lat="36.746770" lon="-119.085430">
        <ele>1034.732</ele>
        <time>2018-12-29T08:26:35Z</time>
      </trkpt>
      <trkpt lat="36.746770" lon="-119.085330">
        <ele>1035.561</ele>
        <time>2018-12-29T08:26:55Z</time>
      </trkpt>
      <trkpt lat="36.746780" lon="-119.085240">
        <ele>1036.714</ele>
        <time>2018-12-29T08:27:15Z</time>
      </trkpt>
      <trkpt lat="36.746800" lon="-119.085120">
        <ele>1038.454</ele>
        <time>2018-12-29T08:27:35Z</time>
      </trkpt>
      <trkpt lat="36.746830" lon="-119.084980">
        <ele>1039.309</ele>
        <time>2018-12-29T08:27:55Z</time>
      </trkpt>
      <trkpt lat="36.746890" lon="-119.084750">
        <ele>1041.008</ele>
        <time>2018-12-29T08:28:15Z</time>
      </trkpt>
      <trkpt lat="36.746980" lon="-119.084370">
        <ele>1042.924</ele>
        <time>2018-12-29T08:28:35Z</time>
      </trkpt>
      <trkpt lat="36.747030" lon="-119.084150">
        <ele>1042.972</ele>
        <time>2018-12-29T08:28:55Z</time>
      </trkpt>
      <trkpt lat="36.747060" lon="-119.084000">
        <ele>1043.347</ele>
        <time>2018-12-29T08:29:15Z</time>
      </trkpt>
      <trkpt lat="36.747070" lon="-119.083900">
        <ele>1044.437</ele>
        <time>2018-12-29T08:29:35Z</time>
      </trkpt>
      <trkpt lat="36.747070" lon="-119.083790">
        <ele>1045.191</ele>
        <time>2018-12-29T08:29:55Z</time>
      </trkpt>
      <trkpt lat="36.747070" lon="-119.083720">
        <ele>1045.641</ele>
        <time>2018-12-29T08:30:15Z</time>
      </trkpt>
      <trkpt lat="36.747060" lon="-119.083660">
        <ele>1045.537</ele>
        <time>2018-12-29T08:30:35Z</time>
      </trkpt>
      <trkpt lat="36.747060" lon="-119.083590">
        <ele>1046.056</ele>
        <time>2018-12-29T08:30:55Z</time>
      </trkpt>
      <trkpt lat="36.747040" lon="-119.083500">
        <ele>1045.819</ele>
        <time>2018-12-29T08:31:15Z</time>
      </trkpt>
      <trkpt lat="36.747000" lon="-119.083370">
        <ele>1045.109</ele>
        <time>2018-12-29T08:31:35Z</time>
      </trkpt>
      <trkpt lat="36.746930" lon="-119.083120">
        <ele>1046.819</ele>
        <time>2018-12-29T08:31:55Z</time>
      </trkpt>
      <trkpt lat="36.746800" lon="-119.082710">
        <ele>1053.108</ele>
        <time>2018-12-29T08:32:15Z</time>
      </trkpt>
      <trkpt lat="36.746690" lon="-119.082350">
        <ele>1053.414</ele>
        <time>2018-12-29T08:32:35Z</time>
      </trkpt>
      <trkpt lat="36.746650" lon="-119.082220">
        <ele>1053.862</ele>
        <time>2018-12-29T08:32:55Z</time>
      </trkpt>
      <trkpt lat="36.746620" lon="-119.082120">
        <ele>1054.147</ele>
        <time>2018-12-29T08:33:15Z</time>
      </trkpt>
      <trkpt lat="36.746590" lon="-119.082040">
        <ele>1054.437</ele>
        <time>2018-12-29T08:33:35Z</time>
      </trkpt>
      <trkpt lat="36.746560" lon="-119.081970">
        <ele>1054.751</ele>
        <time>2018-12-29T08:33:55Z</time>
      </trkpt>
      <trkpt lat="36.746520" lon="-119.081900">
        <ele>1054.831</ele>
        <time>2018-12-29T08:34:15Z</time>
      </trkpt>
      <trkpt lat="36.746470" lon="-119.081810">
        <ele>1054.647</ele>
        <time>2018-12-29T08:34:35Z</time>
      </trkpt>
      <trkpt lat="36.746420" lon="-119.081750">
        <ele>1054.596</ele>
        <time>2018-12-29T08:34:55Z</time>
      </trkpt>
      <trkpt lat="36.746370" lon="-119.081690">
        <ele>1055.039</ele>
        <time>2018-12-29T08:35:15Z</time>
      </trkpt>
      <trkpt lat="36.746310" lon="-119.081630">
        <ele>1055.801</ele>
        <time>2018-12-29T08:35:35Z</time>
      </trkpt>
      <trkpt lat="36.746250" lon="-119.081580">
        <ele>1056.921</ele>
        <time>2018-12-29T08:35:55Z</time>
      </trkpt>
      <trkpt lat="36.746190" lon="-119.081530">
        <ele>1057.608</ele>
        <time>2018-12-29T08:36:15Z</time>
      </trkpt>
      <trkpt lat="36.746120" lon="-119.081490">
        <ele>1057.276</ele>
        <time>2018-12-29T08:36:35Z</time>
      </trkpt>
      <trkpt lat="36.746080" lon="-119.081470">
        <ele>1057.294</ele>
        <time>2018-12-29T08:36:55Z</time>
      </trkpt>
      <trkpt lat="36.746020" lon="-119.081440">
        <ele>1057.599</ele>
        <time>2018-12-29T08:37:15Z</time>
      </trkpt>
      <trkpt lat="36.745960" lon="-119.081430">
        <ele>1057.659</ele>
        <time>2018-12-29T08:37:35Z</time>
      </trkpt>
      <trkpt lat="36.745870" lon="-119.081410">
        <ele>1059.493</ele>
        <time>2018-12-29T08:37:55Z</time>
      </trkpt>
      <trkpt lat="36.745780" lon="-119.081400">
        <ele>1060.783</ele>
        <time>2018-12-29T08:38:15Z</time>
      </trkpt>
      <trkpt lat="36.745710" lon="-119.081390">
        <ele>1061.829</ele>
        <time>2018-12-29T08:38:35Z</time>
      </trkpt>
      <trkpt lat="36.745650" lon="-119.081370">
        <ele>1062.448</ele>
        <time>2018-12-29T08:38:55Z</time>
      </trkpt>
      <trkpt lat="36.745570" lon="-119.081350">
        <ele>1062.742</ele>
        <time>2018-12-29T08:39:15Z</time>
      </trkpt>
      <trkpt lat="36.745480" lon="-119.081320">
        <ele>1063.222</ele>
        <time>2018-12-29T08:39:35Z</time>
      </trkpt>
      <trkpt lat="36.745390" lon="-119.081270">
        <ele>1063.914</ele>
        <time>2018-12-29T08:39:55Z</time>
      </trkpt>
      <trkpt lat="36.745320" lon="-119.081220">
        <ele>1064.308</ele>
        <time>2018-12-29T08:40:15Z</time>
      </trkpt>
      <trkpt lat="36.745240" lon="-119.081150">
        <ele>1065.147</ele>
        <time>2018-12-29T08:40:35Z</time>
      </trkpt>
      <trkpt lat="36.745150" lon="-119.081070">
        <ele>1065.655</ele>
        <time>2018-12-29T08:40:55Z</time>
      </trkpt>
      <trkpt lat="36.745080" lon="-119.080990">
        <ele>1065.980</ele>
        <time>2018-12-29T08:41:15Z</time>
      </trkpt>
      <trkpt lat="36.745000" lon="-119.080870">
        <ele>1067.520</ele>
        <time>2018-12-29T08:41:35Z</time>
      </trkpt>
      <trkpt lat="36.744840" lon="-119.080640">
        <ele>1068.054</ele>
        <time>2018-12-29T08:41:55Z</time>
      </trkpt>
      <trkpt lat="36.744640" lon="-119.080330">
        <ele>1070.294</ele>
        <time>2018-12-29T08:42:15Z</time>
      </trkpt>
      <trkpt lat="36.744330" lon="-119.079850">
        <ele>1069.620</ele>
        <time>2018-12-29T08:42:35Z</time>
      </trkpt>
      <trkpt lat="36.743990" lon="-119.079320">
        <ele>1070.479</ele>
        <time>2018-12-29T08:42:55Z</time>
      </trkpt>
      <trkpt lat="36.743820" lon="-119.079030">
        <ele>1072.779</ele>
        <time>2018-12-29T08:43:15Z</time>
      </trkpt>
      <trkpt lat="36.743740" lon="-119.078900">
        <ele>1073.905</ele>
        <time>2018-12-29T08:43:35Z</time>
      </trkpt>
      <trkpt lat="36.743700" lon="-119.078800">
        <ele>1076.125</ele>
        <time>2018-12-29T08:43:55Z</time>
      </trkpt>
      <trkpt lat="36.743660" lon="-119.078700">
        <ele>1077.508</ele>
        <time>2018-12-29T08:44:15Z</time>
      </trkpt>
      <trkpt lat="36.743630" lon="-119.078600">
        <ele>1078.510</ele>
        <time>2018-12-29T08:44:35Z</time>
      </trkpt>
      <trkpt lat="36.743590" lon="-119.078470">
        <ele>1079.758</ele>
        <time>2018-12-29T08:44:55Z</time>
      </trkpt>
      <trkpt lat="36.743570" lon="-119.078330">
        <ele>1079.833</ele>
        <time>2018-12-29T08:45:15Z</time>
      </trkpt>
      <trkpt lat="36.743560" lon="-119.078180">
        <ele>1080.223</ele>
        <time>2018-12-29T08:45:35Z</time>
      </trkpt>
      <trkpt lat="36.743550" lon="-119.078020">
        <ele>1080.537</ele>
        <time>2018-12-29T08:45:55Z</time>
      </trkpt>
      <trkpt lat="36.743550" lon="-119.077860">
        <ele>1080.987</ele>
        <time>2018-12-29T08:46:15Z</time>
      </trkpt>
      <trkpt lat="36.743570" lon="-119.077660">
        <ele>1081.783</ele>
        <time>2018-12-29T08:46:35Z</time>
      </trkpt>
      <trkpt lat="36.743620" lon="-119.077290">
        <ele>1081.852</ele>
        <time>2018-12-29T08:46:55Z</time>
      </trkpt>
      <trkpt lat="36.743730" lon="-119.076620">
        <ele>1089.258</ele>
        <time>2018-12-29T08:47:15Z</time>
      </trkpt>
      <trkpt lat="36.743760" lon="-119.076350">
        <ele>1089.552</ele>
        <time>2018-12-29T08:47:35Z</time>
      </trkpt>
      <trkpt lat="36.743780" lon="-119.076190">
        <ele>1090.017</ele>
        <time>2018-12-29T08:47:55Z</time>
      </trkpt>
      <trkpt lat="36.743790" lon="-119.076050">
        <ele>1091.208</ele>
        <time>2018-12-29T08:48:15Z</time>
      </trkpt>
      <trkpt lat="36.743790" lon="-119.075920">
        <ele>1091.998</ele>
        <time>2018-12-29T08:48:35Z</time>
      </trkpt>
      <trkpt lat="36.743790" lon="-119.075790">
        <ele>1092.356</ele>
        <time>2018-12-29T08:48:55Z</time>
      </trkpt>
      <trkpt lat="36.743770" lon="-119.075560">
        <ele>1092.231</ele>
        <time>2018-12-29T08:49:15Z</time>
      </trkpt>
      <trkpt lat="36.743760" lon="-119.075380">
        <ele>1092.331</ele>
        <time>2018-12-29T08:49:35Z</time>
      </trkpt>
      <trkpt lat="36.743760" lon="-119.075230">
        <ele>1092.125</ele>
        <time>2018-12-29T08:49:55Z</time>
      </trkpt>
      <trkpt lat="36.743760" lon="-119.075090">
        <ele>1091.885</ele>
        <time>2018-12-29T08:50:15Z</time>
      </trkpt>
      <trkpt lat="36.743760" lon="-119.074950">
        <ele>1091.371</ele>
        <time>2018-12-29T08:50:35Z</time>
      </trkpt>
      <trkpt lat="36.743770" lon="-119.074790">
        <ele>1091.420</ele>
        <time>2018-12-29T08:50:55Z</time>
      </trkpt>
      <trkpt lat="36.743790" lon="-119.074610">
        <ele>1092.012</ele>
        <time>2018-12-29T08:51:15Z</time>
      </trkpt>
      <trkpt lat="36.743820" lon="-119.074430">
        <ele>1092.032</ele>
        <time>2018-12-29T08:51:35Z</time>
      </trkpt>
      <trkpt lat="36.743860" lon="-119.074240">
        <ele>1091.405</ele>
        <time>2018-12-29T08:51:55Z</time>
      </trkpt>
      <trkpt lat="36.743900" lon="-119.074050">
        <ele>1090.408</ele>
        <time>2018-12-29T08:52:15Z</time>
      </trkpt>
      <trkpt lat="36.743930" lon="-119.073950">
        <ele>1091.114</ele>
        <time>2018-12-29T08:52:35Z</time>
      </trkpt>
      <trkpt lat="36.743990" lon="-119.073760">
        <ele>1093.252</ele>
        <time>2018-12-29T08:52:55Z</time>
      </trkpt>
      <trkpt lat="36.744080" lon="-119.073480">
        <ele>1099.997</ele>
        <time>2018-12-29T08:53:15Z</time>
      </trkpt>
      <trkpt lat="36.744220" lon="-119.073080">
        <ele>1105.577</ele>
        <time>2018-12-29T08:53:35Z</time>
      </trkpt>
      <trkpt lat="36.744310" lon="-119.072780">
        <ele>1106.131</ele>
        <time>2018-12-29T08:53:55Z</time>
      </trkpt>
      <trkpt lat="36.744380" lon="-119.072510">
        <ele>1104.921</ele>
        <time>2018-12-29T08:54:15Z</time>
      </trkpt>
      <trkpt lat="36.744410" lon="-119.072360">
        <ele>1104.117</ele>
        <time>2018-12-29T08:54:35Z</time>
      </trkpt>
      <trkpt lat="36.744440" lon="-119.072210">
        <ele>1104.456</ele>
        <time>2018-12-29T08:54:55Z</time>
      </trkpt>
      <trkpt lat="36.744470" lon="-119.072040">
        <ele>1105.044</ele>
        <time>2018-12-29T08:55:15Z</time>
      </trkpt>
      <trkpt lat="36.744490" lon="-119.071850">
        <ele>1106.005</ele>
        <time>2018-12-29T08:55:35Z</time>
      </trkpt>
      <trkpt lat="36.744500" lon="-119.071650">
        <ele>1106.215</ele>
        <time>2018-12-29T08:55:55Z</time>
      </trkpt>
      <trkpt lat="36.744530" lon="-119.071350">
        <ele>1106.808</ele>
        <time>2018-12-29T08:56:15Z</time>
      </trkpt>
      <trkpt lat="36.744550" lon="-119.071100">
        <ele>1107.187</ele>
        <time>2018-12-29T08:56:35Z</time>
      </trkpt>
      <trkpt lat="36.744570" lon="-119.070970">
        <ele>1107.835</ele>
        <time>2018-12-29T08:56:55Z</time>
      </trkpt>
      <trkpt lat="36.744590" lon="-119.070840">
        <ele>1111.440</ele>
        <time>2018-12-29T08:57:15Z</time>
      </trkpt>
      <trkpt lat="36.744630" lon="-119.070670">
        <ele>1116.290</ele>
        <time>2018-12-29T08:57:35Z</time>
      </trkpt>
      <trkpt lat="36.744690" lon="-119.070450">
        <ele>1117.564</ele>
        <time>2018-12-29T08:57:55Z</time>
      </trkpt>
      <trkpt lat="36.744740" lon="-119.070290">
        <ele>1118.354</ele>
        <time>2018-12-29T08:58:15Z</time>
      </trkpt>
      <trkpt lat="36.744820" lon="-119.070080">
        <ele>1118.940</ele>
        <time>2018-12-29T08:58:35Z</time>
      </trkpt>
      <trkpt lat="36.744870" lon="-119.069910">
        <ele>1118.859</ele>
        <time>2018-12-29T08:58:55Z</time>
      </trkpt>
      <trkpt lat="36.744900" lon="-119.069790">
        <ele>1118.266</ele>
        <time>2018-12-29T08:59:15Z</time>
      </trkpt>
      <trkpt lat="36.744920" lon="-119.069680">
        <ele>1116.929</ele>
        <time>2018-12-29T08:59:35Z</time>
      </trkpt>
      <trkpt lat="36.744940" lon="-119.069600">
        <ele>1116.021</ele>
        <time>2018-12-29T08:59:55Z</time>
      </trkpt>
      <trkpt lat="36.744950" lon="-119.069520">
        <ele>1116.508</ele>
        <time>2018-12-29T09:00:15Z</time>
      </trkpt>
      <trkpt lat="36.744960" lon="-119.069450">
        <ele>1117.459</ele>
        <time>2018-12-29T09:00:35Z</time>
      </trkpt>
      <trkpt lat="36.744960" lon="-119.069310">
        <ele>1118.467</ele>
        <time>2018-12-29T09:00:55Z</time>
      </trkpt>
      <trkpt lat="36.744960" lon="-119.069210">
        <ele>1119.412</ele>
        <time>2018-12-29T09:01:15Z</time>
      </trkpt>
      <trkpt lat="36.744950" lon="-119.069120">
        <ele>1119.812</ele>
        <time>2018-12-29T09:01:35Z</time>
      </trkpt>
      <trkpt lat="36.744940" lon="-119.069020">
        <ele>1120.436</ele>
        <time>2018-12-29T09:01:55Z</time>
      </trkpt>
      <trkpt lat="36.744920" lon="-119.068930">
        <ele>1120.996</ele>
        <time>2018-12-29T09:02:15Z</time>
      </trkpt>
      <trkpt lat="36.744880" lon="-119.068780">
        <ele>1120.642</ele>
        <time>2018-12-29T09:02:35Z</time>
      </trkpt>
      <trkpt lat="36.744840" lon="-119.068670">
        <ele>1120.761</ele>
        <time>2018-12-29T09:02:55Z</time>
      </trkpt>
      <trkpt lat="36.744790" lon="-119.068540">
        <ele>1121.392</ele>
        <time>2018-12-29T09:03:15Z</time>
      </trkpt>
      <trkpt lat="36.744730" lon="-119.068410">
        <ele>1121.773</ele>
        <time>2018-12-29T09:03:35Z</time>
      </trkpt>
      <trkpt lat="36.744670" lon="-119.068310">
        <ele>1121.520</ele>
        <time>2018-12-29T09:03:55Z</time>
      </trkpt>
      <trkpt lat="36.744590" lon="-119.068190">
        <ele>1120.708</ele>
        <time>2018-12-29T09:04:15Z</time>
      </trkpt>
      <trkpt lat="36.744500" lon="-119.068100">
        <ele>1121.892</ele>
        <time>2018-12-29T09:04:35Z</time>
      </trkpt>
      <trkpt lat="36.744400" lon="-119.068020">
        <ele>1123.530</ele>
        <time>2018-12-29T09:04:55Z</time>
      </trkpt>
      <trkpt lat="36.744310" lon="-119.067950">
        <ele>1125.655</ele>
        <time>2018-12-29T09:05:15Z</time>
      </trkpt>
      <trkpt lat="36.744180" lon="-119.067860">
        <ele>1128.975</ele>
        <time>2018-12-29T09:05:35Z</time>
      </trkpt>
      <trkpt lat="36.743990" lon="-119.067730">
        <ele>1130.889</ele>
        <time>2018-12-29T09:05:55Z</time>
      </trkpt>
      <trkpt lat="36.743880" lon="-119.067650">
        <ele>1130.299</ele>
        <time>2018-12-29T09:06:15Z</time>
      </trkpt>
      <trkpt lat="36.743800" lon="-119.067590">
        <ele>1129.795</ele>
        <time>2018-12-29T09:06:35Z</time>
      </trkpt>
      <trkpt lat="36.743740" lon="-119.067510">
        <ele>1129.214</ele>
        <time>2018-12-29T09:06:55Z</time>
      </trkpt>
      <trkpt lat="36.743680" lon="-119.067430">
        <ele>1128.476</ele>
        <time>2018-12-29T09:07:15Z</time>
      </trkpt>
      <trkpt lat="36.743630" lon="-119.067350">
        <ele>1128.190</ele>
        <time>2018-12-29T09:07:35Z</time>
      </trkpt>
      <trkpt lat="36.743590" lon="-119.067280">
        <ele>1128.219</ele>
        <time>2018-12-29T09:07:55Z</time>
      </trkpt>
      <trkpt lat="36.743540" lon="-119.067170">
        <ele>1128.408</ele>
        <time>2018-12-29T09:08:15Z</time>
      </trkpt>
      <trkpt lat="36.743490" lon="-119.067040">
        <ele>1128.220</ele>
        <time>2018-12-29T09:08:35Z</time>
      </trkpt>
      <trkpt lat="36.743460" lon="-119.066920">
        <ele>1128.468</ele>
        <time>2018-12-29T09:08:55Z</time>
      </trkpt>
      <trkpt lat="36.743430" lon="-119.066770">
        <ele>1129.553</ele>
        <time>2018-12-29T09:09:15Z</time>
      </trkpt>
      <trkpt lat="36.743380" lon="-119.066420">
        <ele>1135.363</ele>
        <time>2018-12-29T09:09:35Z</time>
      </trkpt>
      <trkpt lat="36.743060" lon="-119.064400">
        <ele>1140.227</ele>
        <time>2018-12-29T09:09:55Z</time>
      </trkpt>
      <trkpt lat="36.743000" lon="-119.064120">
        <ele>1140.147</ele>
        <time>2018-12-29T09:10:15Z</time>
      </trkpt>
      <trkpt lat="36.742960" lon="-119.063960">
        <ele>1140.143</ele>
        <time>2018-12-29T09:10:35Z</time>
      </trkpt>
      <trkpt lat="36.742920" lon="-119.063860">
        <ele>1140.212</ele>
        <time>2018-12-29T09:10:55Z</time>
      </trkpt>
      <trkpt lat="36.742870" lon="-119.063730">
        <ele>1140.536</ele>
        <time>2018-12-29T09:11:15Z</time>
      </trkpt>
      <trkpt lat="36.742810" lon="-119.063610">
        <ele>1141.317</ele>
        <time>2018-12-29T09:11:35Z</time>
      </trkpt>
      <trkpt lat="36.742750" lon="-119.063500">
        <ele>1141.818</ele>
        <time>2018-12-29T09:11:55Z</time>
      </trkpt>
      <trkpt lat="36.742670" lon="-119.063370">
        <ele>1142.208</ele>
        <time>2018-12-29T09:12:15Z</time>
      </trkpt>
      <trkpt lat="36.742580" lon="-119.063260">
        <ele>1143.266</ele>
        <time>2018-12-29T09:12:35Z</time>
      </trkpt>
      <trkpt lat="36.742320" lon="-119.062940">
        <ele>1150.734</ele>
        <time>2018-12-29T09:12:55Z</time>
      </trkpt>
      <trkpt lat="36.742150" lon="-119.062730">
        <ele>1153.589</ele>
        <time>2018-12-29T09:13:15Z</time>
      </trkpt>
      <trkpt lat="36.742070" lon="-119.062610">
        <ele>1154.419</ele>
        <time>2018-12-29T09:13:35Z</time>
      </trkpt>
      <trkpt lat="36.742010" lon="-119.062500">
        <ele>1154.833</ele>
        <time>2018-12-29T09:13:55Z</time>
      </trkpt>
      <trkpt lat="36.741940" lon="-119.062370">
        <ele>1155.453</ele>
        <time>2018-12-29T09:14:15Z</time>
      </trkpt>
      <trkpt lat="36.741890" lon="-119.062230">
        <ele>1157.829</ele>
        <time>2018-12-29T09:14:35Z</time>
      </trkpt>
      <trkpt lat="36.741840" lon="-119.062070">
        <ele>1161.568</ele>
        <time>2018-12-29T09:14:55Z</time>
      </trkpt>
      <trkpt lat="36.741810" lon="-119.061940">
        <ele>1162.334</ele>
        <time>2018-12-29T09:15:15Z</time>
      </trkpt>
      <trkpt lat="36.741790" lon="-119.061830">
        <ele>1162.955</ele>
        <time>2018-12-29T09:15:35Z</time>
      </trkpt>
      <trkpt lat="36.741770" lon="-119.061720">
        <ele>1163.310</ele>
        <time>2018-12-29T09:15:55Z</time>
      </trkpt>
      <trkpt lat="36.741770" lon="-119.061570">
        <ele>1164.308</ele>
        <time>2018-12-29T09:16:15Z</time>
      </trkpt>
      <trkpt lat="36.741770" lon="-119.061410">
        <ele>1164.696</ele>
        <time>2018-12-29T09:16:35Z</time>
      </trkpt>
      <trkpt lat="36.741780" lon="-119.061270">
        <ele>1164.864</ele>
        <time>2018-12-29T09:16:55Z</time>
      </trkpt>
      <trkpt lat="36.741820" lon="-119.060840">
        <ele>1165.149</ele>
        <time>2018-12-29T09:17:15Z</time>
      </trkpt>
      <trkpt lat="36.741910" lon="-119.059930">
        <ele>1166.719</ele>
        <time>2018-12-29T09:17:35Z</time>
      </trkpt>
      <trkpt lat="36.741920" lon="-119.059770">
        <ele>1167.013</ele>
        <time>2018-12-29T09:17:55Z</time>
      </trkpt>
      <trkpt lat="36.741920" lon="-119.059670">
        <ele>1166.933</ele>
        <time>2018-12-29T09:18:15Z</time>
      </trkpt>
      <trkpt lat="36.741920" lon="-119.059580">
        <ele>1166.959</ele>
        <time>2018-12-29T09:18:35Z</time>
      </trkpt>
      <trkpt lat="36.741910" lon="-119.059510">
        <ele>1166.778</ele>
        <time>2018-12-29T09:18:55Z</time>
      </trkpt>
      <trkpt lat="36.741900" lon="-119.059420">
        <ele>1166.675</ele>
        <time>2018-12-29T09:19:15Z</time>
      </trkpt>
      <trkpt lat="36.741880" lon="-119.059350">
        <ele>1166.228</ele>
        <time>2018-12-29T09:19:35Z</time>
      </trkpt>
      <trkpt lat="36.741860" lon="-119.059260">
        <ele>1166.520</ele>
        <time>2018-12-29T09:19:55Z</time>
      </trkpt>
      <trkpt lat="36.741820" lon="-119.059170">
        <ele>1166.908</ele>
        <time>2018-12-29T09:20:15Z</time>
      </trkpt>
      <trkpt lat="36.741770" lon="-119.059090">
        <ele>1167.080</ele>
        <time>2018-12-29T09:20:35Z</time>
      </trkpt>
      <trkpt lat="36.741730" lon="-119.059020">
        <ele>1167.428</ele>
        <time>2018-12-29T09:20:55Z</time>
      </trkpt>
      <trkpt lat="36.741660" lon="-119.058940">
        <ele>1167.963</ele>
        <time>2018-12-29T09:21:15Z</time>
      </trkpt>
      <trkpt lat="36.741570" lon="-119.058850">
        <ele>1168.063</ele>
        <time>2018-12-29T09:21:35Z</time>
      </trkpt>
      <trkpt lat="36.741480" lon="-119.058780">
        <ele>1168.037</ele>
        <time>2018-12-29T09:21:55Z</time>
      </trkpt>
      <trkpt lat="36.741350" lon="-119.058680">
        <ele>1169.017</ele>
        <time>2018-12-29T09:22:15Z</time>
      </trkpt>
      <trkpt lat="36.741170" lon="-119.058580">
        <ele>1170.493</ele>
        <time>2018-12-29T09:22:35Z</time>
      </trkpt>
      <trkpt lat="36.741030" lon="-119.058480">
        <ele>1173.542</ele>
        <time>2018-12-29T09:22:55Z</time>
      </trkpt>
      <trkpt lat="36.740920" lon="-119.058380">
        <ele>1174.422</ele>
        <time>2018-12-29T09:23:15Z</time>
      </trkpt>
      <trkpt lat="36.740840" lon="-119.058280">
        <ele>1174.762</ele>
        <time>2018-12-29T09:23:35Z</time>
      </trkpt>
      <trkpt lat="36.740770" lon="-119.058170">
        <ele>1175.608</ele>
        <time>2018-12-29T09:23:55Z</time>
      </trkpt>
      <trkpt lat="36.740710" lon="-119.058080">
        <ele>1175.708</ele>
        <time>2018-12-29T09:24:15Z</time>
      </trkpt>
      <trkpt lat="36.740660" lon="-119.057970">
        <ele>1175.985</ele>
        <time>2018-12-29T09:24:35Z</time>
      </trkpt>
      <trkpt lat="36.740620" lon="-119.057870">
        <ele>1176.013</ele>
        <time>2018-12-29T09:24:55Z</time>
      </trkpt>
      <trkpt lat="36.740580" lon="-119.057730">
        <ele>1176.548</ele>
        <time>2018-12-29T09:25:15Z</time>
      </trkpt>
      <trkpt lat="36.740550" lon="-119.057580">
        <ele>1177.198</ele>
        <time>2018-12-29T09:25:35Z</time>
      </trkpt>
      <trkpt lat="36.740540" lon="-119.057440">
        <ele>1177.622</ele>
        <time>2018-12-29T09:25:55Z</time>
      </trkpt>
      <trkpt lat="36.740540" lon="-119.057320">
        <ele>1178.112</ele>
        <time>2018-12-29T09:26:15Z</time>
      </trkpt>
      <trkpt lat="36.740540" lon="-119.057170">
        <ele>1178.278</ele>
        <time>2018-12-29T09:26:35Z</time>
      </trkpt>
      <trkpt lat="36.740560" lon="-119.057050">
        <ele>1178.977</ele>
        <time>2018-12-29T09:26:55Z</time>
      </trkpt>
      <trkpt lat="36.740600" lon="-119.056890">
        <ele>1179.773</ele>
        <time>2018-12-29T09:27:15Z</time>
      </trkpt>
      <trkpt lat="36.740640" lon="-119.056740">
        <ele>1180.385</ele>
        <time>2018-12-29T09:27:35Z</time>
      </trkpt>
      <trkpt lat="36.740740" lon="-119.056510">
        <ele>1183.313</ele>
        <time>2018-12-29T09:27:55Z</time>
      </trkpt>
      <trkpt lat="36.740860" lon="-119.056220">
        <ele>1182.908</ele>
        <time>2018-12-29T09:28:15Z</time>
      </trkpt>
      <trkpt lat="36.740920" lon="-119.056100">
        <ele>1182.580</ele>
        <time>2018-12-29T09:28:35Z</time>
      </trkpt>
      <trkpt lat="36.740980" lon="-119.055990">
        <ele>1182.168</ele>
        <time>2018-12-29T09:28:55Z</time>
      </trkpt>
      <trkpt lat="36.741050" lon="-119.055890">
        <ele>1183.413</ele>
        <time>2018-12-29T09:29:15Z</time>
      </trkpt>
      <trkpt lat="36.741130" lon="-119.055820">
        <ele>1185.493</ele>
        <time>2018-12-29T09:29:35Z</time>
      </trkpt>
      <trkpt lat="36.741210" lon="-119.055750">
        <ele>1187.167</ele>
        <time>2018-12-29T09:29:55Z</time>
      </trkpt>
      <trkpt lat="36.741300" lon="-119.055700">
        <ele>1188.487</ele>
        <time>2018-12-29T09:30:15Z</time>
      </trkpt>
      <trkpt lat="36.741380" lon="-119.055670">
        <ele>1189.253</ele>
        <time>2018-12-29T09:30:35Z</time>
      </trkpt>
      <trkpt lat="36.741460" lon="-119.055640">
        <ele>1189.982</ele>
        <time>2018-12-29T09:30:55Z</time>
      </trkpt>
      <trkpt lat="36.741560" lon="-119.055620">
        <ele>1190.136</ele>
        <time>2018-12-29T09:31:15Z</time>
      </trkpt>
      <trkpt lat="36.741650" lon="-119.055620">
        <ele>1189.417</ele>
        <time>2018-12-29T09:31:35Z</time>
      </trkpt>
      <trkpt lat="36.741740" lon="-119.055630">
        <ele>1188.818</ele>
        <time>2018-12-29T09:31:55Z</time>
      </trkpt>
      <trkpt lat="36.741830" lon="-119.055650">
        <ele>1188.208</ele>
        <time>2018-12-29T09:32:15Z</time>
      </trkpt>
      <trkpt lat="36.741910" lon="-119.055670">
        <ele>1187.476</ele>
        <time>2018-12-29T09:32:35Z</time>
      </trkpt>
      <trkpt lat="36.741980" lon="-119.055700">
        <ele>1187.014</ele>
        <time>2018-12-29T09:32:55Z</time>
      </trkpt>
      <trkpt lat="36.742060" lon="-119.055760">
        <ele>1186.959</ele>
        <time>2018-12-29T09:33:15Z</time>
      </trkpt>
      <trkpt lat="36.742120" lon="-119.055810">
        <ele>1186.359</ele>
        <time>2018-12-29T09:33:35Z</time>
      </trkpt>
      <trkpt lat="36.742180" lon="-119.055870">
        <ele>1185.883</ele>
        <time>2018-12-29T09:33:55Z</time>
      </trkpt>
      <trkpt lat="36.742240" lon="-119.055940">
        <ele>1186.083</ele>
        <time>2018-12-29T09:34:15Z</time>
      </trkpt>
      <trkpt lat="36.742290" lon="-119.056030">
        <ele>1186.679</ele>
        <time>2018-12-29T09:34:35Z</time>
      </trkpt>
      <trkpt lat="36.742340" lon="-119.056120">
        <ele>1186.878</ele>
        <time>2018-12-29T09:34:55Z</time>
      </trkpt>
      <trkpt lat="36.742370" lon="-119.056190">
        <ele>1187.042</ele>
        <time>2018-12-29T09:35:15Z</time>
      </trkpt>
      <trkpt lat="36.742400" lon="-119.056270">
        <ele>1187.322</ele>
        <time>2018-12-29T09:35:35Z</time>
      </trkpt>
      <trkpt lat="36.742410" lon="-119.056350">
        <ele>1188.014</ele>
        <time>2018-12-29T09:35:55Z</time>
      </trkpt>
      <trkpt lat="36.742420" lon="-119.056410">
        <ele>1188.508</ele>
        <time>2018-12-29T09:36:15Z</time>
      </trkpt>
      <trkpt lat="36.742440" lon="-119.056500">
        <ele>1189.247</ele>
        <time>2018-12-29T09:36:35Z</time>
      </trkpt>
      <trkpt lat="36.742450" lon="-119.056630">
        <ele>1190.785</ele>
        <time>2018-12-29T09:36:55Z</time>
      </trkpt>
      <trkpt lat="36.742460" lon="-119.056770">
        <ele>1192.420</ele>
        <time>2018-12-29T09:37:15Z</time>
      </trkpt>
      <trkpt lat="36.742460" lon="-119.057040">
        <ele>1196.410</ele>
        <time>2018-12-29T09:37:35Z</time>
      </trkpt>
      <trkpt lat="36.742470" lon="-119.057200">
        <ele>1198.024</ele>
        <time>2018-12-29T09:37:55Z</time>
      </trkpt>
      <trkpt lat="36.742480" lon="-119.057320">
        <ele>1199.184</ele>
        <time>2018-12-29T09:38:15Z</time>
      </trkpt>
      <trkpt lat="36.742500" lon="-119.057460">
        <ele>1200.390</ele>
        <time>2018-12-29T09:38:35Z</time>
      </trkpt>
      <trkpt lat="36.742520" lon="-119.057590">
        <ele>1201.579</ele>
        <time>2018-12-29T09:38:55Z</time>
      </trkpt>
      <trkpt lat="36.742560" lon="-119.057710">
        <ele>1201.915</ele>
        <time>2018-12-29T09:39:15Z</time>
      </trkpt>
      <trkpt lat="36.742590" lon="-119.057820">
        <ele>1202.265</ele>
        <time>2018-12-29T09:39:35Z</time>
      </trkpt>
      <trkpt lat="36.742640" lon="-119.057920">
        <ele>1202.911</ele>
        <time>2018-12-29T09:39:55Z</time>
      </trkpt>
      <trkpt lat="36.742680" lon="-119.058000">
        <ele>1202.308</ele>
        <time>2018-12-29T09:40:15Z</time>
      </trkpt>
      <trkpt lat="36.742720" lon="-119.058090">
        <ele>1201.894</ele>
        <time>2018-12-29T09:40:35Z</time>
      </trkpt>
      <trkpt lat="36.742780" lon="-119.058180">
        <ele>1201.292</ele>
        <time>2018-12-29T09:40:55Z</time>
      </trkpt>
      <trkpt lat="36.742850" lon="-119.058270">
        <ele>1201.377</ele>
        <time>2018-12-29T09:41:15Z</time>
      </trkpt>
      <trkpt lat="36.742940" lon="-119.058370">
        <ele>1202.597</ele>
        <time>2018-12-29T09:41:35Z</time>
      </trkpt>
      <trkpt lat="36.743020" lon="-119.058440">
        <ele>1203.381</ele>
        <time>2018-12-29T09:41:55Z</time>
      </trkpt>
      <trkpt lat="36.743130" lon="-119.058530">
        <ele>1203.911</ele>
        <time>2018-12-29T09:42:15Z</time>
      </trkpt>
      <trkpt lat="36.743250" lon="-119.058620">
        <ele>1205.157</ele>
        <time>2018-12-29T09:42:35Z</time>
      </trkpt>
      <trkpt lat="36.743400" lon="-119.058720">
        <ele>1207.956</ele>
        <time>2018-12-29T09:42:55Z</time>
      </trkpt>
      <trkpt lat="36.743560" lon="-119.058850">
        <ele>1210.365</ele>
        <time>2018-12-29T09:43:15Z</time>
      </trkpt>
      <trkpt lat="36.743660" lon="-119.058930">
        <ele>1211.068</ele>
        <time>2018-12-29T09:43:35Z</time>
      </trkpt>
      <trkpt lat="36.743740" lon="-119.059010">
        <ele>1212.014</ele>
        <time>2018-12-29T09:43:55Z</time>
      </trkpt>
      <trkpt lat="36.743800" lon="-119.059080">
        <ele>1212.208</ele>
        <time>2018-12-29T09:44:15Z</time>
      </trkpt>
      <trkpt lat="36.743890" lon="-119.059190">
        <ele>1212.519</ele>
        <time>2018-12-29T09:44:35Z</time>
      </trkpt>
      <trkpt lat="36.743940" lon="-119.059270">
        <ele>1213.277</ele>
        <time>2018-12-29T09:44:55Z</time>
      </trkpt>
      <trkpt lat="36.744000" lon="-119.059360">
        <ele>1213.632</ele>
        <time>2018-12-29T09:45:15Z</time>
      </trkpt>
      <trkpt lat="36.744080" lon="-119.059490">
        <ele>1214.112</ele>
        <time>2018-12-29T09:45:35Z</time>
      </trkpt>
      <trkpt lat="36.744150" lon="-119.059610">
        <ele>1214.926</ele>
        <time>2018-12-29T09:45:55Z</time>
      </trkpt>
      <trkpt lat="36.744240" lon="-119.059730">
        <ele>1214.916</ele>
        <time>2018-12-29T09:46:15Z</time>
      </trkpt>
      <trkpt lat="36.744310" lon="-119.059830">
        <ele>1215.352</ele>
        <time>2018-12-29T09:46:35Z</time>
      </trkpt>
      <trkpt lat="36.744370" lon="-119.059910">
        <ele>1215.341</ele>
        <time>2018-12-29T09:46:55Z</time>
      </trkpt>
      <trkpt lat="36.744460" lon="-119.059990">
        <ele>1215.036</ele>
        <time>2018-12-29T09:47:15Z</time>
      </trkpt>
      <trkpt lat="36.744540" lon="-119.060060">
        <ele>1215.017</ele>
        <time>2018-12-29T09:47:35Z</time>
      </trkpt>
      <trkpt lat="36.744620" lon="-119.060110">
        <ele>1215.718</ele>
        <time>2018-12-29T09:47:55Z</time>
      </trkpt>
      <trkpt lat="36.744720" lon="-119.060180">
        <ele>1217.908</ele>
        <time>2018-12-29T09:48:15Z</time>
      </trkpt>
      <trkpt lat="36.744830" lon="-119.060240">
        <ele>1219.616</ele>
        <time>2018-12-29T09:48:35Z</time>
      </trkpt>
      <trkpt lat="36.744930" lon="-119.060290">
        <ele>1220.994</ele>
        <time>2018-12-29T09:48:55Z</time>
      </trkpt>
      <trkpt lat="36.745040" lon="-119.060320">
        <ele>1222.059</ele>
        <time>2018-12-29T09:49:15Z</time>
      </trkpt>
      <trkpt lat="36.745170" lon="-119.060370">
        <ele>1223.779</ele>
        <time>2018-12-29T09:49:35Z</time>
      </trkpt>
      <trkpt lat="36.745320" lon="-119.060420">
        <ele>1224.963</ele>
        <time>2018-12-29T09:49:55Z</time>
      </trkpt>
      <trkpt lat="36.745420" lon="-119.060450">
        <ele>1225.533</ele>
        <time>2018-12-29T09:50:15Z</time>
      </trkpt>
      <trkpt lat="36.745520" lon="-119.060500">
        <ele>1226.199</ele>
        <time>2018-12-29T09:50:35Z</time>
      </trkpt>
      <trkpt lat="36.745620" lon="-119.060550">
        <ele>1226.558</ele>
        <time>2018-12-29T09:50:55Z</time>
      </trkpt>
      <trkpt lat="36.745710" lon="-119.060610">
        <ele>1227.095</ele>
        <time>2018-12-29T09:51:15Z</time>
      </trkpt>
      <trkpt lat="36.745780" lon="-119.060650">
        <ele>1226.949</ele>
        <time>2018-12-29T09:51:35Z</time>
      </trkpt>
      <trkpt lat="36.745850" lon="-119.060710">
        <ele>1227.123</ele>
        <time>2018-12-29T09:51:55Z</time>
      </trkpt>
      <trkpt lat="36.745920" lon="-119.060780">
        <ele>1227.208</ele>
        <time>2018-12-29T09:52:15Z</time>
      </trkpt>
      <trkpt lat="36.745990" lon="-119.060860">
        <ele>1227.272</ele>
        <time>2018-12-29T09:52:35Z</time>
      </trkpt>
      <trkpt lat="36.746070" lon="-119.060960">
        <ele>1227.080</ele>
        <time>2018-12-29T09:52:55Z</time>
      </trkpt>
      <trkpt lat="36.746160" lon="-119.061090">
        <ele>1227.155</ele>
        <time>2018-12-29T09:53:15Z</time>
      </trkpt>
      <trkpt lat="36.746290" lon="-119.061310">
        <ele>1226.465</ele>
        <time>2018-12-29T09:53:35Z</time>
      </trkpt>
      <trkpt lat="36.746430" lon="-119.061540">
        <ele>1225.669</ele>
        <time>2018-12-29T09:53:55Z</time>
      </trkpt>
      <trkpt lat="36.746580" lon="-119.061800">
        <ele>1226.889</ele>
        <time>2018-12-29T09:54:15Z</time>
      </trkpt>
      <trkpt lat="36.746700" lon="-119.062000">
        <ele>1230.745</ele>
        <time>2018-12-29T09:54:35Z</time>
      </trkpt>
      <trkpt lat="36.746840" lon="-119.062250">
        <ele>1234.274</ele>
        <time>2018-12-29T09:54:55Z</time>
      </trkpt>
      <trkpt lat="36.746960" lon="-119.062470">
        <ele>1236.741</ele>
        <time>2018-12-29T09:55:15Z</time>
      </trkpt>
      <trkpt lat="36.747030" lon="-119.062620">
        <ele>1239.181</ele>
        <time>2018-12-29T09:55:35Z</time>
      </trkpt>
      <trkpt lat="36.747100" lon="-119.062760">
        <ele>1241.409</ele>
        <time>2018-12-29T09:55:55Z</time>
      </trkpt>
      <trkpt lat="36.747140" lon="-119.062880">
        <ele>1243.308</ele>
        <time>2018-12-29T09:56:15Z</time>
      </trkpt>
      <trkpt lat="36.747200" lon="-119.063030">
        <ele>1244.947</ele>
        <time>2018-12-29T09:56:35Z</time>
      </trkpt>
      <trkpt lat="36.747280" lon="-119.063250">
        <ele>1247.815</ele>
        <time>2018-12-29T09:56:55Z</time>
      </trkpt>
      <trkpt lat="36.747370" lon="-119.063480">
        <ele>1249.490</ele>
        <time>2018-12-29T09:57:15Z</time>
      </trkpt>
      <trkpt lat="36.747410" lon="-119.063570">
        <ele>1249.930</ele>
        <time>2018-12-29T09:57:35Z</time>
      </trkpt>
      <trkpt lat="36.747450" lon="-119.063640">
        <ele>1250.314</ele>
        <time>2018-12-29T09:57:55Z</time>
      </trkpt>
      <trkpt lat="36.747490" lon="-119.063710">
        <ele>1251.174</ele>
        <time>2018-12-29T09:58:15Z</time>
      </trkpt>
      <trkpt lat="36.747530" lon="-119.063760">
        <ele>1251.450</ele>
        <time>2018-12-29T09:58:35Z</time>
      </trkpt>
      <trkpt lat="36.747570" lon="-119.063800">
        <ele>1251.489</ele>
        <time>2018-12-29T09:58:55Z</time>
      </trkpt>
      <trkpt lat="36.747620" lon="-119.063850">
        <ele>1251.236</ele>
        <time>2018-12-29T09:59:15Z</time>
      </trkpt>
      <trkpt lat="36.747680" lon="-119.063900">
        <ele>1251.517</ele>
        <time>2018-12-29T09:59:35Z</time>
      </trkpt>
      <trkpt lat="36.747730" lon="-119.063930">
        <ele>1251.718</ele>
        <time>2018-12-29T09:59:55Z</time>
      </trkpt>
      <trkpt lat="36.747790" lon="-119.063950">
        <ele>1251.608</ele>
        <time>2018-12-29T10:00:15Z</time>
      </trkpt>
      <trkpt lat="36.747850" lon="-119.063970">
        <ele>1251.676</ele>
        <time>2018-12-29T10:00:35Z</time>
      </trkpt>
      <trkpt lat="36.747910" lon="-119.063980">
        <ele>1251.334</ele>
        <time>2018-12-29T10:00:55Z</time>
      </trkpt>
      <trkpt lat="36.747990" lon="-119.063970">
        <ele>1251.729</ele>
        <time>2018-12-29T10:01:15Z</time>
      </trkpt>
      <trkpt lat="36.748060" lon="-119.063960">
        <ele>1252.199</ele>
        <time>2018-12-29T10:01:35Z</time>
      </trkpt>
      <trkpt lat="36.748110" lon="-119.063950">
        <ele>1252.393</ele>
        <time>2018-12-29T10:01:55Z</time>
      </trkpt>
      <trkpt lat="36.748190" lon="-119.063910">
        <ele>1252.493</ele>
        <time>2018-12-29T10:02:15Z</time>
      </trkpt>
      <trkpt lat="36.748270" lon="-119.063870">
        <ele>1253.549</ele>
        <time>2018-12-29T10:02:35Z</time>
      </trkpt>
      <trkpt lat="36.748340" lon="-119.063810">
        <ele>1254.448</ele>
        <time>2018-12-29T10:02:55Z</time>
      </trkpt>
      <trkpt lat="36.748400" lon="-119.063750">
        <ele>1255.155</ele>
        <time>2018-12-29T10:03:15Z</time>
      </trkpt>
      <trkpt lat="36.748440" lon="-119.063690">
        <ele>1255.607</ele>
        <time>2018-12-29T10:03:35Z</time>
      </trkpt>
      <trkpt lat="36.748480" lon="-119.063640">
        <ele>1256.217</ele>
        <time>2018-12-29T10:03:55Z</time>
      </trkpt>
      <trkpt lat="36.748510" lon="-119.063580">
        <ele>1256.708</ele>
        <time>2018-12-29T10:04:15Z</time>
      </trkpt>
      <trkpt lat="36.748530" lon="-119.063520">
        <ele>1256.968</ele>
        <time>2018-12-29T10:04:35Z</time>
      </trkpt>
      <trkpt lat="36.748560" lon="-119.063420">
        <ele>1257.476</ele>
        <time>2018-12-29T10:04:55Z</time>
      </trkpt>
      <trkpt lat="36.748570" lon="-119.063370">
        <ele>1257.731</ele>
        <time>2018-12-29T10:05:15Z</time>
      </trkpt>
      <trkpt lat="36.748580" lon="-119.063300">
        <ele>1257.931</ele>
        <time>2018-12-29T10:05:35Z</time>
      </trkpt>
      <trkpt lat="36.748590" lon="-119.063220">
        <ele>1258.135</ele>
        <time>2018-12-29T10:05:55Z</time>
      </trkpt>
      <trkpt lat="36.748580" lon="-119.063140">
        <ele>1257.755</ele>
        <time>2018-12-29T10:06:15Z</time>
      </trkpt>
      <trkpt lat="36.748580" lon="-119.063070">
        <ele>1257.781</ele>
        <time>2018-12-29T10:06:35Z</time>
      </trkpt>
      <trkpt lat="36.748560" lon="-119.062980">
        <ele>1257.110</ele>
        <time>2018-12-29T10:06:55Z</time>
      </trkpt>
      <trkpt lat="36.748540" lon="-119.062890">
        <ele>1257.064</ele>
        <time>2018-12-29T10:07:15Z</time>
      </trkpt>
      <trkpt lat="36.748470" lon="-119.062660">
        <ele>1258.606</ele>
        <time>2018-12-29T10:07:35Z</time>
      </trkpt>
      <trkpt lat="36.748380" lon="-119.062340">
        <ele>1264.516</ele>
        <time>2018-12-29T10:07:55Z</time>
      </trkpt>
      <trkpt lat="36.748330" lon="-119.062150">
        <ele>1266.008</ele>
        <time>2018-12-29T10:08:15Z</time>
      </trkpt>
      <trkpt lat="36.748300" lon="-119.062000">
        <ele>1266.699</ele>
        <time>2018-12-29T10:08:35Z</time>
      </trkpt>
      <trkpt lat="36.748280" lon="-119.061860">
        <ele>1267.017</ele>
        <time>2018-12-29T10:08:55Z</time>
      </trkpt>
      <trkpt lat="36.748270" lon="-119.061750">
        <ele>1267.322</ele>
        <time>2018-12-29T10:09:15Z</time>
      </trkpt>
      <trkpt lat="36.748260" lon="-119.061630">
        <ele>1267.452</ele>
        <time>2018-12-29T10:09:35Z</time>
      </trkpt>
      <trkpt lat="36.748260" lon="-119.061510">
        <ele>1267.786</ele>
        <time>2018-12-29T10:09:55Z</time>
      </trkpt>
      <trkpt lat="36.748270" lon="-119.061330">
        <ele>1267.966</ele>
        <time>2018-12-29T10:10:15Z</time>
      </trkpt>
      <trkpt lat="36.748290" lon="-119.061130">
        <ele>1268.172</ele>
        <time>2018-12-29T10:10:35Z</time>
      </trkpt>
      <trkpt lat="36.748330" lon="-119.060880">
        <ele>1268.641</ele>
        <time>2018-12-29T10:10:55Z</time>
      </trkpt>
      <trkpt lat="36.748470" lon="-119.059990">
        <ele>1269.447</ele>
        <time>2018-12-29T10:11:15Z</time>
      </trkpt>
      <trkpt lat="36.748620" lon="-119.059040">
        <ele>1279.029</ele>
        <time>2018-12-29T10:11:35Z</time>
      </trkpt>
      <trkpt lat="36.748640" lon="-119.058870">
        <ele>1279.421</ele>
        <time>2018-12-29T10:11:55Z</time>
      </trkpt>
      <trkpt lat="36.748660" lon="-119.058740">
        <ele>1279.808</ele>
        <time>2018-12-29T10:12:15Z</time>
      </trkpt>
      <trkpt lat="36.748670" lon="-119.058640">
        <ele>1280.447</ele>
        <time>2018-12-29T10:12:35Z</time>
      </trkpt>
      <trkpt lat="36.748670" lon="-119.058540">
        <ele>1280.845</ele>
        <time>2018-12-29T10:12:55Z</time>
      </trkpt>
      <trkpt lat="36.748670" lon="-119.058460">
        <ele>1281.230</ele>
        <time>2018-12-29T10:13:15Z</time>
      </trkpt>
      <trkpt lat="36.748660" lon="-119.058380">
        <ele>1281.780</ele>
        <time>2018-12-29T10:13:35Z</time>
      </trkpt>
      <trkpt lat="36.748650" lon="-119.058310">
        <ele>1282.254</ele>
        <time>2018-12-29T10:13:55Z</time>
      </trkpt>
      <trkpt lat="36.748640" lon="-119.058260">
        <ele>1282.494</ele>
        <time>2018-12-29T10:14:15Z</time>
      </trkpt>
      <trkpt lat="36.748620" lon="-119.058200">
        <ele>1282.490</ele>
        <time>2018-12-29T10:14:35Z</time>
      </trkpt>
      <trkpt lat="36.748590" lon="-119.058130">
        <ele>1282.489</ele>
        <time>2018-12-29T10:14:55Z</time>
      </trkpt>
      <trkpt lat="36.748560" lon="-119.058060">
        <ele>1282.485</ele>
        <time>2018-12-29T10:15:15Z</time>
      </trkpt>
      <trkpt lat="36.748530" lon="-119.058000">
        <ele>1282.489</ele>
        <time>2018-12-29T10:15:35Z</time>
      </trkpt>
      <trkpt lat="36.748490" lon="-119.057920">
        <ele>1282.517</ele>
        <time>2018-12-29T10:15:55Z</time>
      </trkpt>
      <trkpt lat="36.748450" lon="-119.057870">
        <ele>1282.008</ele>
        <time>2018-12-29T10:16:15Z</time>
      </trkpt>
      <trkpt lat="36.748410" lon="-119.057820">
        <ele>1281.961</ele>
        <time>2018-12-29T10:16:35Z</time>
      </trkpt>
      <trkpt lat="36.748350" lon="-119.057760">
        <ele>1281.919</ele>
        <time>2018-12-29T10:16:55Z</time>
      </trkpt>
      <trkpt lat="36.748290" lon="-119.057710">
        <ele>1282.394</ele>
        <time>2018-12-29T10:17:15Z</time>
      </trkpt>
      <trkpt lat="36.748240" lon="-119.057680">
        <ele>1282.754</ele>
        <time>2018-12-29T10:17:35Z</time>
      </trkpt>
      <trkpt lat="36.748190" lon="-119.057660">
        <ele>1283.038</ele>
        <time>2018-12-29T10:17:55Z</time>
      </trkpt>
      <trkpt lat="36.748120" lon="-119.057640">
        <ele>1284.798</ele>
        <time>2018-12-29T10:18:15Z</time>
      </trkpt>
      <trkpt lat="36.748040" lon="-119.057620">
        <ele>1286.314</ele>
        <time>2018-12-29T10:18:35Z</time>
      </trkpt>
      <trkpt lat="36.747930" lon="-119.057610">
        <ele>1288.013</ele>
        <time>2018-12-29T10:18:55Z</time>
      </trkpt>
      <trkpt lat="36.747770" lon="-119.057600">
        <ele>1287.298</ele>
        <time>2018-12-29T10:19:15Z</time>
      </trkpt>
      <trkpt lat="36.747660" lon="-119.057590">
        <ele>1286.615</ele>
        <time>2018-12-29T10:19:35Z</time>
      </trkpt>
      <trkpt lat="36.747610" lon="-119.057580">
        <ele>1286.326</ele>
        <time>2018-12-29T10:19:55Z</time>
      </trkpt>
      <trkpt lat="36.747560" lon="-119.057570">
        <ele>1285.908</ele>
        <time>2018-12-29T10:20:15Z</time>
      </trkpt>
      <trkpt lat="36.747500" lon="-119.057550">
        <ele>1285.612</ele>
        <time>2018-12-29T10:20:35Z</time>
      </trkpt>
      <trkpt lat="36.747430" lon="-119.057530">
        <ele>1285.190</ele>
        <time>2018-12-29T10:20:55Z</time>
      </trkpt>
      <trkpt lat="36.747370" lon="-119.057500">
        <ele>1284.835</ele>
        <time>2018-12-29T10:21:15Z</time>
      </trkpt>
      <trkpt lat="36.747290" lon="-119.057450">
        <ele>1284.295</ele>
        <time>2018-12-29T10:21:35Z</time>
      </trkpt>
      <trkpt lat="36.747220" lon="-119.057390">
        <ele>1284.179</ele>
        <time>2018-12-29T10:21:55Z</time>
      </trkpt>
      <trkpt lat="36.747150" lon="-119.057330">
        <ele>1284.329</ele>
        <time>2018-12-29T10:22:15Z</time>
      </trkpt>
      <trkpt lat="36.747100" lon="-119.057270">
        <ele>1284.895</ele>
        <time>2018-12-29T10:22:35Z</time>
      </trkpt>
      <trkpt lat="36.747060" lon="-119.057220">
        <ele>1285.244</ele>
        <time>2018-12-29T10:22:55Z</time>
      </trkpt>
      <trkpt lat="36.747030" lon="-119.057180">
        <ele>1285.518</ele>
        <time>2018-12-29T10:23:15Z</time>
      </trkpt>
      <trkpt lat="36.746990" lon="-119.057110">
        <ele>1286.398</ele>
        <time>2018-12-29T10:23:35Z</time>
      </trkpt>
      <trkpt lat="36.746960" lon="-119.057040">
        <ele>1287.217</ele>
        <time>2018-12-29T10:23:55Z</time>
      </trkpt>
      <trkpt lat="36.746930" lon="-119.056970">
        <ele>1287.808</ele>
        <time>2018-12-29T10:24:15Z</time>
      </trkpt>
      <trkpt lat="36.746860" lon="-119.056800">
        <ele>1288.624</ele>
        <time>2018-12-29T10:24:35Z</time>
      </trkpt>
      <trkpt lat="36.746760" lon="-119.056520">
        <ele>1289.662</ele>
        <time>2018-12-29T10:24:55Z</time>
      </trkpt>
      <trkpt lat="36.746680" lon="-119.056290">
        <ele>1294.227</ele>
        <time>2018-12-29T10:25:15Z</time>
      </trkpt>
      <trkpt lat="36.746640" lon="-119.056160">
        <ele>1295.847</ele>
        <time>2018-12-29T10:25:35Z</time>
      </trkpt>
      <trkpt lat="36.746610" lon="-119.056050">
        <ele>1296.681</ele>
        <time>2018-12-29T10:25:55Z</time>
      </trkpt>
      <trkpt lat="36.746580" lon="-119.055960">
        <ele>1296.941</ele>
        <time>2018-12-29T10:26:15Z</time>
      </trkpt>
      <trkpt lat="36.746570" lon="-119.055860">
        <ele>1297.167</ele>
        <time>2018-12-29T10:26:35Z</time>
      </trkpt>
      <trkpt lat="36.746560" lon="-119.055780">
        <ele>1297.286</ele>
        <time>2018-12-29T10:26:55Z</time>
      </trkpt>
      <trkpt lat="36.746560" lon="-119.055660">
        <ele>1297.754</ele>
        <time>2018-12-29T10:27:15Z</time>
      </trkpt>
      <trkpt lat="36.746560" lon="-119.055560">
        <ele>1297.956</ele>
        <time>2018-12-29T10:27:35Z</time>
      </trkpt>
      <trkpt lat="36.746570" lon="-119.055470">
        <ele>1298.311</ele>
        <time>2018-12-29T10:27:55Z</time>
      </trkpt>
      <trkpt lat="36.746580" lon="-119.055400">
        <ele>1298.608</ele>
        <time>2018-12-29T10:28:15Z</time>
      </trkpt>
      <trkpt lat="36.746600" lon="-119.055310">
        <ele>1298.898</ele>
        <time>2018-12-29T10:28:35Z</time>
      </trkpt>
      <trkpt lat="36.746630" lon="-119.055210">
        <ele>1299.216</ele>
        <time>2018-12-29T10:28:55Z</time>
      </trkpt>
      <trkpt lat="36.746660" lon="-119.055130">
        <ele>1299.411</ele>
        <time>2018-12-29T10:29:15Z</time>
      </trkpt>
      <trkpt lat="36.746690" lon="-119.055030">
        <ele>1298.641</ele>
        <time>2018-12-29T10:29:35Z</time>
      </trkpt>
      <trkpt lat="36.746740" lon="-119.054960">
        <ele>1299.095</ele>
        <time>2018-12-29T10:29:55Z</time>
      </trkpt>
      <trkpt lat="36.746830" lon="-119.054820">
        <ele>1299.855</ele>
        <time>2018-12-29T10:30:15Z</time>
      </trkpt>
      <trkpt lat="36.746980" lon="-119.054620">
        <ele>1299.531</ele>
        <time>2018-12-29T10:30:35Z</time>
      </trkpt>
      <trkpt lat="36.747050" lon="-119.054520">
        <ele>1298.440</ele>
        <time>2018-12-29T10:30:55Z</time>
      </trkpt>
      <trkpt lat="36.747110" lon="-119.054420">
        <ele>1297.672</ele>
        <time>2018-12-29T10:31:15Z</time>
      </trkpt>
      <trkpt lat="36.747170" lon="-119.054320">
        <ele>1296.613</ele>
        <time>2018-12-29T10:31:35Z</time>
      </trkpt>
      <trkpt lat="36.747220" lon="-119.054210">
        <ele>1296.814</ele>
        <time>2018-12-29T10:31:55Z</time>
      </trkpt>
      <trkpt lat="36.747280" lon="-119.054090">
        <ele>1298.008</ele>
        <time>2018-12-29T10:32:15Z</time>
      </trkpt>
      <trkpt lat="36.747340" lon="-119.053950">
        <ele>1300.530</ele>
        <time>2018-12-29T10:32:35Z</time>
      </trkpt>
      <trkpt lat="36.747380" lon="-119.053820">
        <ele>1303.688</ele>
        <time>2018-12-29T10:32:55Z</time>
      </trkpt>
      <trkpt lat="36.747400" lon="-119.053700">
        <ele>1305.373</ele>
        <time>2018-12-29T10:33:15Z</time>
      </trkpt>
      <trkpt lat="36.747420" lon="-119.053570">
        <ele>1307.013</ele>
        <time>2018-12-29T10:33:35Z</time>
      </trkpt>
      <trkpt lat="36.747430" lon="-119.053440">
        <ele>1308.497</ele>
        <time>2018-12-29T10:33:55Z</time>
      </trkpt>
      <trkpt lat="36.747430" lon="-119.053330">
        <ele>1309.187</ele>
        <time>2018-12-29T10:34:15Z</time>
      </trkpt>
      <trkpt lat="36.747430" lon="-119.053140">
        <ele>1310.383</ele>
        <time>2018-12-29T10:34:35Z</time>
      </trkpt>
      <trkpt lat="36.747420" lon="-119.052930">
        <ele>1311.152</ele>
        <time>2018-12-29T10:34:55Z</time>
      </trkpt>
      <trkpt lat="36.747410" lon="-119.052710">
        <ele>1311.881</ele>
        <time>2018-12-29T10:35:15Z</time>
      </trkpt>
      <trkpt lat="36.747410" lon="-119.052570">
        <ele>1313.161</ele>
        <time>2018-12-29T10:35:35Z</time>
      </trkpt>
      <trkpt lat="36.747420" lon="-119.052470">
        <ele>1314.817</ele>
        <time>2018-12-29T10:35:55Z</time>
      </trkpt>
      <trkpt lat="36.747450" lon="-119.052320">
        <ele>1317.108</ele>
        <time>2018-12-29T10:36:15Z</time>
      </trkpt>
      <trkpt lat="36.747480" lon="-119.052170">
        <ele>1318.091</ele>
        <time>2018-12-29T10:36:35Z</time>
      </trkpt>
      <trkpt lat="36.747550" lon="-119.051950">
        <ele>1319.469</ele>
        <time>2018-12-29T10:36:55Z</time>
      </trkpt>
      <trkpt lat="36.747610" lon="-119.051760">
        <ele>1320.164</ele>
        <time>2018-12-29T10:37:15Z</time>
      </trkpt>
      <trkpt lat="36.747640" lon="-119.051650">
        <ele>1320.424</ele>
        <time>2018-12-29T10:37:35Z</time>
      </trkpt>
      <trkpt lat="36.747670" lon="-119.051500">
        <ele>1321.088</ele>
        <time>2018-12-29T10:37:55Z</time>
      </trkpt>
      <trkpt lat="36.747680" lon="-119.051430">
        <ele>1321.938</ele>
        <time>2018-12-29T10:38:15Z</time>
      </trkpt>
      <trkpt lat="36.747690" lon="-119.051400">
        <ele>1322.564</ele>
        <time>2018-12-29T10:38:35Z</time>
      </trkpt>
      <trkpt lat="36.747690" lon="-119.051360">
        <ele>1322.953</ele>
        <time>2018-12-29T10:38:55Z</time>
      </trkpt>
      <trkpt lat="36.747690" lon="-119.051320">
        <ele>1323.313</ele>
        <time>2018-12-29T10:39:15Z</time>
      </trkpt>
      <trkpt lat="36.747680" lon="-119.051260">
        <ele>1323.543</ele>
        <time>2018-12-29T10:39:35Z</time>
      </trkpt>
      <trkpt lat="36.747680" lon="-119.051160">
        <ele>1324.107</ele>
        <time>2018-12-29T10:39:55Z</time>
      </trkpt>
      <trkpt lat="36.747660" lon="-119.051060">
        <ele>1324.108</ele>
        <time>2018-12-29T10:40:15Z</time>
      </trkpt>
      <trkpt lat="36.747650" lon="-119.050990">
        <ele>1324.264</ele>
        <time>2018-12-29T10:40:35Z</time>
      </trkpt>
      <trkpt lat="36.747630" lon="-119.050900">
        <ele>1323.882</ele>
        <time>2018-12-29T10:40:55Z</time>
      </trkpt>
      <trkpt lat="36.747550" lon="-119.050570">
        <ele>1322.877</ele>
        <time>2018-12-29T10:41:15Z</time>
      </trkpt>
      <trkpt lat="36.747500" lon="-119.050350">
        <ele>1322.717</ele>
        <time>2018-12-29T10:41:35Z</time>
      </trkpt>
      <trkpt lat="36.747460" lon="-119.050150">
        <ele>1322.581</ele>
        <time>2018-12-29T10:41:55Z</time>
      </trkpt>
      <trkpt lat="36.747440" lon="-119.050000">
        <ele>1322.731</ele>
        <time>2018-12-29T10:42:15Z</time>
      </trkpt>
      <trkpt lat="36.747410" lon="-119.049840">
        <ele>1322.427</ele>
        <time>2018-12-29T10:42:35Z</time>
      </trkpt>
      <trkpt lat="36.747400" lon="-119.049650">
        <ele>1323.186</ele>
        <time>2018-12-29T10:42:55Z</time>
      </trkpt>
      <trkpt lat="36.747380" lon="-119.049470">
        <ele>1323.532</ele>
        <time>2018-12-29T10:43:15Z</time>
      </trkpt>
      <trkpt lat="36.747360" lon="-119.049160">
        <ele>1324.992</ele>
        <time>2018-12-29T10:43:35Z</time>
      </trkpt>
      <trkpt lat="36.747330" lon="-119.048720">
        <ele>1326.611</ele>
        <time>2018-12-29T10:43:55Z</time>
      </trkpt>
      <trkpt lat="36.747280" lon="-119.048070">
        <ele>1333.308</ele>
        <time>2018-12-29T10:44:15Z</time>
      </trkpt>
      <trkpt lat="36.747230" lon="-119.047470">
        <ele>1340.226</ele>
        <time>2018-12-29T10:44:35Z</time>
      </trkpt>
      <trkpt lat="36.747190" lon="-119.046940">
        <ele>1339.244</ele>
        <time>2018-12-29T10:44:55Z</time>
      </trkpt>
      <trkpt lat="36.747130" lon="-119.046140">
        <ele>1340.849</ele>
        <time>2018-12-29T10:45:15Z</time>
      </trkpt>
      <trkpt lat="36.747110" lon="-119.045870">
        <ele>1341.459</ele>
        <time>2018-12-29T10:45:35Z</time>
      </trkpt>
      <trkpt lat="36.747100" lon="-119.045650">
        <ele>1344.143</ele>
        <time>2018-12-29T10:45:55Z</time>
      </trkpt>
      <trkpt lat="36.747090" lon="-119.045540">
        <ele>1346.693</ele>
        <time>2018-12-29T10:46:15Z</time>
      </trkpt>
      <trkpt lat="36.747080" lon="-119.045440">
        <ele>1348.989</ele>
        <time>2018-12-29T10:46:35Z</time>
      </trkpt>
      <trkpt lat="36.747070" lon="-119.045380">
        <ele>1350.288</ele>
        <time>2018-12-29T10:46:55Z</time>
      </trkpt>
      <trkpt lat="36.747060" lon="-119.045300">
        <ele>1351.976</ele>
        <time>2018-12-29T10:47:15Z</time>
      </trkpt>
      <trkpt lat="36.747040" lon="-119.045200">
        <ele>1353.990</ele>
        <time>2018-12-29T10:47:35Z</time>
      </trkpt>
      <trkpt lat="36.747020" lon="-119.045130">
        <ele>1355.219</ele>
        <time>2018-12-29T10:47:55Z</time>
      </trkpt>
      <trkpt lat="36.747010" lon="-119.045080">
        <ele>1355.908</ele>
        <time>2018-12-29T10:48:15Z</time>
      </trkpt>
      <trkpt lat="36.746990" lon="-119.045000">
        <ele>1357.120</ele>
        <time>2018-12-29T10:48:35Z</time>
      </trkpt>
      <trkpt lat="36.746960" lon="-119.044920">
        <ele>1358.268</ele>
        <time>2018-12-29T10:48:55Z</time>
      </trkpt>
      <trkpt lat="36.746940" lon="-119.044870">
        <ele>1359.093</ele>
        <time>2018-12-29T10:49:15Z</time>
      </trkpt>
      <trkpt lat="36.746910" lon="-119.044810">
        <ele>1359.513</ele>
        <time>2018-12-29T10:49:35Z</time>
      </trkpt>
      <trkpt lat="36.746870" lon="-119.044730">
        <ele>1360.277</ele>
        <time>2018-12-29T10:49:55Z</time>
      </trkpt>
      <trkpt lat="36.746820" lon="-119.044650">
        <ele>1360.637</ele>
        <time>2018-12-29T10:50:15Z</time>
      </trkpt>
      <trkpt lat="36.746780" lon="-119.044600">
        <ele>1360.823</ele>
        <time>2018-12-29T10:50:35Z</time>
      </trkpt>
      <trkpt lat="36.746720" lon="-119.044530">
        <ele>1361.572</ele>
        <time>2018-12-29T10:50:55Z</time>
      </trkpt>
      <trkpt lat="36.746680" lon="-119.044490">
        <ele>1361.859</ele>
        <time>2018-12-29T10:51:15Z</time>
      </trkpt>
      <trkpt lat="36.746630" lon="-119.044440">
        <ele>1362.303</ele>
        <time>2018-12-29T10:51:35Z</time>
      </trkpt>
      <trkpt lat="36.746570" lon="-119.044410">
        <ele>1362.323</ele>
        <time>2018-12-29T10:51:55Z</time>
      </trkpt>
      <trkpt lat="36.746540" lon="-119.044390">
        <ele>1362.408</ele>
        <time>2018-12-29T10:52:15Z</time>
      </trkpt>
      <trkpt lat="36.746500" lon="-119.044360">
        <ele>1362.638</ele>
        <time>2018-12-29T10:52:35Z</time>
      </trkpt>
      <trkpt lat="36.746470" lon="-119.044350">
        <ele>1362.556</ele>
        <time>2018-12-29T10:52:55Z</time>
      </trkpt>
      <trkpt lat="36.746440" lon="-119.044340">
        <ele>1362.441</ele>
        <time>2018-12-29T10:53:15Z</time>
      </trkpt>
      <trkpt lat="36.746390" lon="-119.044320">
        <ele>1362.231</ele>
        <time>2018-12-29T10:53:35Z</time>
      </trkpt>
      <trkpt lat="36.746330" lon="-119.044300">
        <ele>1361.995</ele>
        <time>2018-12-29T10:53:55Z</time>
      </trkpt>
      <trkpt lat="36.746280" lon="-119.044290">
        <ele>1361.535</ele>
        <time>2018-12-29T10:54:15Z</time>
      </trkpt>
      <trkpt lat="36.746220" lon="-119.044280">
        <ele>1361.411</ele>
        <time>2018-12-29T10:54:35Z</time>
      </trkpt>
      <trkpt lat="36.746180" lon="-119.044270">
        <ele>1361.650</ele>
        <time>2018-12-29T10:54:55Z</time>
      </trkpt>
      <trkpt lat="36.746140" lon="-119.044270">
        <ele>1361.745</ele>
        <time>2018-12-29T10:55:15Z</time>
      </trkpt>
      <trkpt lat="36.746080" lon="-119.044270">
        <ele>1361.947</ele>
        <time>2018-12-29T10:55:35Z</time>
      </trkpt>
      <trkpt lat="36.746030" lon="-119.044270">
        <ele>1362.011</ele>
        <time>2018-12-29T10:55:55Z</time>
      </trkpt>
      <trkpt lat="36.745980" lon="-119.044270">
        <ele>1362.208</ele>
        <time>2018-12-29T10:56:15Z</time>
      </trkpt>
      <trkpt lat="36.745920" lon="-119.044280">
        <ele>1362.757</ele>
        <time>2018-12-29T10:56:35Z</time>
      </trkpt>
      <trkpt lat="36.745870" lon="-119.044300">
        <ele>1363.065</ele>
        <time>2018-12-29T10:56:55Z</time>
      </trkpt>
      <trkpt lat="36.745830" lon="-119.044310">
        <ele>1363.460</ele>
        <time>2018-12-29T10:57:15Z</time>
      </trkpt>
      <trkpt lat="36.745780" lon="-119.044330">
        <ele>1363.820</ele>
        <time>2018-12-29T10:57:35Z</time>
      </trkpt>
      <trkpt lat="36.745700" lon="-119.044360">
        <ele>1364.574</ele>
        <time>2018-12-29T10:57:55Z</time>
      </trkpt>
      <trkpt lat="36.745650" lon="-119.044390">
        <ele>1365.614</ele>
        <time>2018-12-29T10:58:15Z</time>
      </trkpt>
      <trkpt lat="36.745620" lon="-119.044400">
        <ele>1366.350</ele>
        <time>2018-12-29T10:58:35Z</time>
      </trkpt>
      <trkpt lat="36.745560" lon="-119.044450">
        <ele>1367.469</ele>
        <time>2018-12-29T10:58:55Z</time>
      </trkpt>
      <trkpt lat="36.745470" lon="-119.044510">
        <ele>1369.177</ele>
        <time>2018-12-29T10:59:15Z</time>
      </trkpt>
      <trkpt lat="36.745330" lon="-119.044630">
        <ele>1369.761</ele>
        <time>2018-12-29T10:59:35Z</time>
      </trkpt>
      <trkpt lat="36.745130" lon="-119.044790">
        <ele>1370.427</ele>
        <time>2018-12-29T10:59:55Z</time>
      </trkpt>
      <trkpt lat="36.744870" lon="-119.045020">
        <ele>1370.508</ele>
        <time>2018-12-29T11:00:15Z</time>
      </trkpt>
      <trkpt lat="36.744780" lon="-119.045100">
        <ele>1370.750</ele>
        <time>2018-12-29T11:00:35Z</time>
      </trkpt>
      <trkpt lat="36.744660" lon="-119.045200">
        <ele>1370.378</ele>
        <time>2018-12-29T11:00:55Z</time>
      </trkpt>
      <trkpt lat="36.744580" lon="-119.045260">
        <ele>1370.433</ele>
        <time>2018-12-29T11:01:15Z</time>
      </trkpt>
      <trkpt lat="36.744490" lon="-119.045330">
        <ele>1370.283</ele>
        <time>2018-12-29T11:01:35Z</time>
      </trkpt>
      <trkpt lat="36.744440" lon="-119.045360">
        <ele>1370.167</ele>
        <time>2018-12-29T11:01:55Z</time>
      </trkpt>
      <trkpt lat="36.744410" lon="-119.045380">
        <ele>1370.097</ele>
        <time>2018-12-29T11:02:15Z</time>
      </trkpt>
      <trkpt lat="36.744380" lon="-119.045400">
        <ele>1369.933</ele>
        <time>2018-12-29T11:02:35Z</time>
      </trkpt>
      <trkpt lat="36.744320" lon="-119.045430">
        <ele>1369.742</ele>
        <time>2018-12-29T11:02:55Z</time>
      </trkpt>
      <trkpt lat="36.744240" lon="-119.045460">
        <ele>1369.683</ele>
        <time>2018-12-29T11:03:15Z</time>
      </trkpt>
      <trkpt lat="36.744170" lon="-119.045490">
        <ele>1369.325</ele>
        <time>2018-12-29T11:03:35Z</time>
      </trkpt>
      <trkpt lat="36.744110" lon="-119.045500">
        <ele>1369.717</ele>
        <time>2018-12-29T11:03:55Z</time>
      </trkpt>
      <trkpt lat="36.744040" lon="-119.045520">
        <ele>1369.808</ele>
        <time>2018-12-29T11:04:15Z</time>
      </trkpt>
      <trkpt lat="36.744000" lon="-119.045520">
        <ele>1369.971</ele>
        <time>2018-12-29T11:04:35Z</time>
      </trkpt>
      <trkpt lat="36.743950" lon="-119.045530">
        <ele>1369.629</ele>
        <time>2018-12-29T11:04:55Z</time>
      </trkpt>
      <trkpt lat="36.743880" lon="-119.045530">
        <ele>1369.694</ele>
        <time>2018-12-29T11:05:15Z</time>
      </trkpt>
      <trkpt lat="36.743830" lon="-119.045530">
        <ele>1369.664</ele>
        <time>2018-12-29T11:05:35Z</time>
      </trkpt>
      <trkpt lat="36.743790" lon="-119.045520">
        <ele>1370.078</ele>
        <time>2018-12-29T11:05:55Z</time>
      </trkpt>
      <trkpt lat="36.743740" lon="-119.045520">
        <ele>1370.178</ele>
        <time>2018-12-29T11:06:15Z</time>
      </trkpt>
      <trkpt lat="36.743710" lon="-119.045510">
        <ele>1370.624</ele>
        <time>2018-12-29T11:06:35Z</time>
      </trkpt>
      <trkpt lat="36.743670" lon="-119.045500">
        <ele>1371.133</ele>
        <time>2018-12-29T11:06:55Z</time>
      </trkpt>
      <trkpt lat="36.743610" lon="-119.045480">
        <ele>1372.081</ele>
        <time>2018-12-29T11:07:15Z</time>
      </trkpt>
      <trkpt lat="36.743550" lon="-119.045450">
        <ele>1372.961</ele>
        <time>2018-12-29T11:07:35Z</time>
      </trkpt>
      <trkpt lat="36.743500" lon="-119.045430">
        <ele>1373.417</ele>
        <time>2018-12-29T11:07:55Z</time>
      </trkpt>
      <trkpt lat="36.743430" lon="-119.045400">
        <ele>1374.808</ele>
        <time>2018-12-29T11:08:15Z</time>
      </trkpt>
      <trkpt lat="36.743390" lon="-119.045360">
        <ele>1376.181</ele>
        <time>2018-12-29T11:08:35Z</time>
      </trkpt>
      <trkpt lat="36.743320" lon="-119.045320">
        <ele>1377.299</ele>
        <time>2018-12-29T11:08:55Z</time>
      </trkpt>
      <trkpt lat="36.743260" lon="-119.045270">
        <ele>1377.894</ele>
        <time>2018-12-29T11:09:15Z</time>
      </trkpt>
      <trkpt lat="36.743190" lon="-119.045200">
        <ele>1377.724</ele>
        <time>2018-12-29T11:09:35Z</time>
      </trkpt>
      <trkpt lat="36.743150" lon="-119.045160">
        <ele>1377.848</ele>
        <time>2018-12-29T11:09:55Z</time>
      </trkpt>
      <trkpt lat="36.743110" lon="-119.045120">
        <ele>1378.118</ele>
        <time>2018-12-29T11:10:15Z</time>
      </trkpt>
      <trkpt lat="36.743050" lon="-119.045040">
        <ele>1378.764</ele>
        <time>2018-12-29T11:10:35Z</time>
      </trkpt>
      <trkpt lat="36.743010" lon="-119.044980">
        <ele>1378.993</ele>
        <time>2018-12-29T11:10:55Z</time>
      </trkpt>
      <trkpt lat="36.742980" lon="-119.044930">
        <ele>1378.946</ele>
        <time>2018-12-29T11:11:15Z</time>
      </trkpt>
      <trkpt lat="36.742950" lon="-119.044870">
        <ele>1378.788</ele>
        <time>2018-12-29T11:11:35Z</time>
      </trkpt>
      <trkpt lat="36.742920" lon="-119.044830">
        <ele>1378.816</ele>
        <time>2018-12-29T11:11:55Z</time>
      </trkpt>
      <trkpt lat="36.742900" lon="-119.044770">
        <ele>1379.208</ele>
        <time>2018-12-29T11:12:15Z</time>
      </trkpt>
      <trkpt lat="36.742870" lon="-119.044710">
        <ele>1379.657</ele>
        <time>2018-12-29T11:12:35Z</time>
      </trkpt>
      <trkpt lat="36.742850" lon="-119.044660">
        <ele>1379.865</ele>
        <time>2018-12-29T11:12:55Z</time>
      </trkpt>
      <trkpt lat="36.742830" lon="-119.044600">
        <ele>1380.160</ele>
        <time>2018-12-29T11:13:15Z</time>
      </trkpt>
      <trkpt lat="36.742820" lon="-119.044550">
        <ele>1380.490</ele>
        <time>2018-12-29T11:13:35Z</time>
      </trkpt>
      <trkpt lat="36.742810" lon="-119.044510">
        <ele>1380.764</ele>
        <time>2018-12-29T11:13:55Z</time>
      </trkpt>
      <trkpt lat="36.742790" lon="-119.044460">
        <ele>1380.874</ele>
        <time>2018-12-29T11:14:15Z</time>
      </trkpt>
      <trkpt lat="36.742780" lon="-119.044400">
        <ele>1381.110</ele>
        <time>2018-12-29T11:14:35Z</time>
      </trkpt>
      <trkpt lat="36.742770" lon="-119.044340">
        <ele>1381.589</ele>
        <time>2018-12-29T11:14:55Z</time>
      </trkpt>
      <trkpt lat="36.742760" lon="-119.044220">
        <ele>1381.941</ele>
        <time>2018-12-29T11:15:15Z</time>
      </trkpt>
      <trkpt lat="36.742750" lon="-119.044130">
        <ele>1382.081</ele>
        <time>2018-12-29T11:15:35Z</time>
      </trkpt>
      <trkpt lat="36.742750" lon="-119.044050">
        <ele>1382.309</ele>
        <time>2018-12-29T11:15:55Z</time>
      </trkpt>
      <trkpt lat="36.742750" lon="-119.043980">
        <ele>1382.608</ele>
        <time>2018-12-29T11:16:15Z</time>
      </trkpt>
      <trkpt lat="36.742760" lon="-119.043910">
        <ele>1383.197</ele>
        <time>2018-12-29T11:16:35Z</time>
      </trkpt>
      <trkpt lat="36.742760" lon="-119.043840">
        <ele>1383.315</ele>
        <time>2018-12-29T11:16:55Z</time>
      </trkpt>
      <trkpt lat="36.742780" lon="-119.043760">
        <ele>1384.130</ele>
        <time>2018-12-29T11:17:15Z</time>
      </trkpt>
      <trkpt lat="36.742790" lon="-119.043700">
        <ele>1384.630</ele>
        <time>2018-12-29T11:17:35Z</time>
      </trkpt>
      <trkpt lat="36.742810" lon="-119.043620">
        <ele>1385.374</ele>
        <time>2018-12-29T11:17:55Z</time>
      </trkpt>
      <trkpt lat="36.742830" lon="-119.043540">
        <ele>1386.134</ele>
        <time>2018-12-29T11:18:15Z</time>
      </trkpt>
      <trkpt lat="36.742860" lon="-119.043480">
        <ele>1387.060</ele>
        <time>2018-12-29T11:18:35Z</time>
      </trkpt>
      <trkpt lat="36.742880" lon="-119.043400">
        <ele>1388.389</ele>
        <time>2018-12-29T11:18:55Z</time>
      </trkpt>
      <trkpt lat="36.742920" lon="-119.043310">
        <ele>1390.292</ele>
        <time>2018-12-29T11:19:15Z</time>
      </trkpt>
      <trkpt lat="36.742950" lon="-119.043250">
        <ele>1391.473</ele>
        <time>2018-12-29T11:19:35Z</time>
      </trkpt>
      <trkpt lat="36.743000" lon="-119.043170">
        <ele>1393.520</ele>
        <time>2018-12-29T11:19:55Z</time>
      </trkpt>
      <trkpt lat="36.743040" lon="-119.043100">
        <ele>1396.108</ele>
        <time>2018-12-29T11:20:15Z</time>
      </trkpt>
      <trkpt lat="36.743100" lon="-119.043010">
        <ele>1398.742</ele>
        <time>2018-12-29T11:20:35Z</time>
      </trkpt>
      <trkpt lat="36.743180" lon="-119.042910">
        <ele>1400.330</ele>
        <time>2018-12-29T11:20:55Z</time>
      </trkpt>
      <trkpt lat="36.743230" lon="-119.042850">
        <ele>1400.635</ele>
        <time>2018-12-29T11:21:15Z</time>
      </trkpt>
      <trkpt lat="36.743380" lon="-119.042690">
        <ele>1399.245</ele>
        <time>2018-12-29T11:21:35Z</time>
      </trkpt>
      <trkpt lat="36.743430" lon="-119.042640">
        <ele>1398.159</ele>
        <time>2018-12-29T11:21:55Z</time>
      </trkpt>
      <trkpt lat="36.743480" lon="-119.042590">
        <ele>1396.649</ele>
        <time>2018-12-29T11:22:15Z</time>
      </trkpt>
      <trkpt lat="36.743520" lon="-119.042530">
        <ele>1396.435</ele>
        <time>2018-12-29T11:22:35Z</time>
      </trkpt>
      <trkpt lat="36.743570" lon="-119.042460">
        <ele>1396.334</ele>
        <time>2018-12-29T11:22:55Z</time>
      </trkpt>
      <trkpt lat="36.743610" lon="-119.042390">
        <ele>1396.124</ele>
        <time>2018-12-29T11:23:15Z</time>
      </trkpt>
      <trkpt lat="36.743650" lon="-119.042320">
        <ele>1395.904</ele>
        <time>2018-12-29T11:23:35Z</time>
      </trkpt>
      <trkpt lat="36.743670" lon="-119.042270">
        <ele>1395.614</ele>
        <time>2018-12-29T11:23:55Z</time>
      </trkpt>
      <trkpt lat="36.743680" lon="-119.042230">
        <ele>1395.408</ele>
        <time>2018-12-29T11:24:15Z</time>
      </trkpt>
      <trkpt lat="36.743700" lon="-119.042170">
        <ele>1395.315</ele>
        <time>2018-12-29T11:24:35Z</time>
      </trkpt>
      <trkpt lat="36.743710" lon="-119.042110">
        <ele>1395.093</ele>
        <time>2018-12-29T11:24:55Z</time>
      </trkpt>
      <trkpt lat="36.743720" lon="-119.042050">
        <ele>1394.958</ele>
        <time>2018-12-29T11:25:15Z</time>
      </trkpt>
      <trkpt lat="36.743730" lon="-119.042000">
        <ele>1395.028</ele>
        <time>2018-12-29T11:25:35Z</time>
      </trkpt>
      <trkpt lat="36.743740" lon="-119.041940">
        <ele>1394.972</ele>
        <time>2018-12-29T11:25:55Z</time>
      </trkpt>
      <trkpt lat="36.743740" lon="-119.041880">
        <ele>1394.552</ele>
        <time>2018-12-29T11:26:15Z</time>
      </trkpt>
      <trkpt lat="36.743740" lon="-119.041830">
        <ele>1394.118</ele>
        <time>2018-12-29T11:26:35Z</time>
      </trkpt>
      <trkpt lat="36.743740" lon="-119.041770">
        <ele>1394.217</ele>
        <time>2018-12-29T11:26:55Z</time>
      </trkpt>
      <trkpt lat="36.743740" lon="-119.041720">
        <ele>1394.552</ele>
        <time>2018-12-29T11:27:15Z</time>
      </trkpt>
      <trkpt lat="36.743740" lon="-119.041680">
        <ele>1394.853</ele>
        <time>2018-12-29T11:27:35Z</time>
      </trkpt>
      <trkpt lat="36.743730" lon="-119.041610">
        <ele>1395.008</ele>
        <time>2018-12-29T11:27:55Z</time>
      </trkpt>
      <trkpt lat="36.743720" lon="-119.041560">
        <ele>1395.108</ele>
        <time>2018-12-29T11:28:15Z</time>
      </trkpt>
      <trkpt lat="36.743710" lon="-119.041510">
        <ele>1395.598</ele>
        <time>2018-12-29T11:28:35Z</time>
      </trkpt>
      <trkpt lat="36.743700" lon="-119.041450">
        <ele>1396.526</ele>
        <time>2018-12-29T11:28:55Z</time>
      </trkpt>
      <trkpt lat="36.743680" lon="-119.041410">
        <ele>1396.921</ele>
        <time>2018-12-29T11:29:15Z</time>
      </trkpt>
      <trkpt lat="36.743670" lon="-119.041370">
        <ele>1397.511</ele>
        <time>2018-12-29T11:29:35Z</time>
      </trkpt>
      <trkpt lat="36.743650" lon="-119.041320">
        <ele>1398.245</ele>
        <time>2018-12-29T11:29:55Z</time>
      </trkpt>
      <trkpt lat="36.743630" lon="-119.041270">
        <ele>1398.915</ele>
        <time>2018-12-29T11:30:15Z</time>
      </trkpt>
      <trkpt lat="36.743600" lon="-119.041200">
        <ele>1400.461</ele>
        <time>2018-12-29T11:30:35Z</time>
      </trkpt>
      <trkpt lat="36.743560" lon="-119.041130">
        <ele>1401.930</ele>
        <time>2018-12-29T11:30:55Z</time>
      </trkpt>
      <trkpt lat="36.743510" lon="-119.041060">
        <ele>1403.423</ele>
        <time>2018-12-29T11:31:15Z</time>
      </trkpt>
      <trkpt lat="36.743480" lon="-119.041020">
        <ele>1404.483</ele>
        <time>2018-12-29T11:31:35Z</time>
      </trkpt>
      <trkpt lat="36.743440" lon="-119.040970">
        <ele>1405.211</ele>
        <time>2018-12-29T11:31:55Z</time>
      </trkpt>
      <trkpt lat="36.743380" lon="-119.040890">
        <ele>1405.908</ele>
        <time>2018-12-29T11:32:15Z</time>
      </trkpt>
      <trkpt lat="36.743330" lon="-119.040830">
        <ele>1406.425</ele>
        <time>2018-12-29T11:32:35Z</time>
      </trkpt>
      <trkpt lat="36.743280" lon="-119.040770">
        <ele>1406.883</ele>
        <time>2018-12-29T11:32:55Z</time>
      </trkpt>
      <trkpt lat="36.743160" lon="-119.040640">
        <ele>1407.138</ele>
        <time>2018-12-29T11:33:15Z</time>
      </trkpt>
      <trkpt lat="36.743090" lon="-119.040560">
        <ele>1406.838</ele>
        <time>2018-12-29T11:33:35Z</time>
      </trkpt>
      <trkpt lat="36.743020" lon="-119.040460">
        <ele>1407.192</ele>
        <time>2018-12-29T11:33:55Z</time>
      </trkpt>
      <trkpt lat="36.742960" lon="-119.040360">
        <ele>1407.492</ele>
        <time>2018-12-29T11:34:15Z</time>
      </trkpt>
      <trkpt lat="36.742920" lon="-119.040300">
        <ele>1407.498</ele>
        <time>2018-12-29T11:34:35Z</time>
      </trkpt>
      <trkpt lat="36.742880" lon="-119.040210">
        <ele>1407.967</ele>
        <time>2018-12-29T11:34:55Z</time>
      </trkpt>
      <trkpt lat="36.742830" lon="-119.040120">
        <ele>1408.387</ele>
        <time>2018-12-29T11:35:15Z</time>
      </trkpt>
      <trkpt lat="36.742790" lon="-119.040020">
        <ele>1409.142</ele>
        <time>2018-12-29T11:35:35Z</time>
      </trkpt>
      <trkpt lat="36.742760" lon="-119.039910">
        <ele>1410.626</ele>
        <time>2018-12-29T11:35:55Z</time>
      </trkpt>
      <trkpt lat="36.742730" lon="-119.039830">
        <ele>1411.608</ele>
        <time>2018-12-29T11:36:15Z</time>
      </trkpt>
      <trkpt lat="36.742710" lon="-119.039740">
        <ele>1413.461</ele>
        <time>2018-12-29T11:36:35Z</time>
      </trkpt>
      <trkpt lat="36.742690" lon="-119.039660">
        <ele>1415.059</ele>
        <time>2018-12-29T11:36:55Z</time>
      </trkpt>
      <trkpt lat="36.742670" lon="-119.039580">
        <ele>1416.894</ele>
        <time>2018-12-29T11:37:15Z</time>
      </trkpt>
      <trkpt lat="36.742660" lon="-119.039490">
        <ele>1417.354</ele>
        <time>2018-12-29T11:37:35Z</time>
      </trkpt>
      <trkpt lat="36.742650" lon="-119.039390">
        <ele>1417.848</ele>
        <time>2018-12-29T11:37:55Z</time>
      </trkpt>
      <trkpt lat="36.742640" lon="-119.039330">
        <ele>1418.088</ele>
        <time>2018-12-29T11:38:15Z</time>
      </trkpt>
      <trkpt lat="36.742640" lon="-119.039260">
        <ele>1418.294</ele>
        <time>2018-12-29T11:38:35Z</time>
      </trkpt>
      <trkpt lat="36.742640" lon="-119.039180">
        <ele>1418.363</ele>
        <time>2018-12-29T11:38:55Z</time>
      </trkpt>
      <trkpt lat="36.742640" lon="-119.039110">
        <ele>1418.469</ele>
        <time>2018-12-29T11:39:15Z</time>
      </trkpt>
      <trkpt lat="36.742640" lon="-119.039020">
        <ele>1418.504</ele>
        <time>2018-12-29T11:39:35Z</time>
      </trkpt>
      <trkpt lat="36.742650" lon="-119.038930">
        <ele>1418.524</ele>
        <time>2018-12-29T11:39:55Z</time>
      </trkpt>
      <trkpt lat="36.742660" lon="-119.038850">
        <ele>1418.508</ele>
        <time>2018-12-29T11:40:15Z</time>
      </trkpt>
      <trkpt lat="36.742670" lon="-119.038800">
        <ele>1418.689</ele>
        <time>2018-12-29T11:40:35Z</time>
      </trkpt>
      <trkpt lat="36.742680" lon="-119.038750">
        <ele>1418.837</ele>
        <time>2018-12-29T11:40:55Z</time>
      </trkpt>
      <trkpt lat="36.742700" lon="-119.038650">
        <ele>1418.462</ele>
        <time>2018-12-29T11:41:15Z</time>
      </trkpt>
      <trkpt lat="36.742720" lon="-119.038580">
        <ele>1418.422</ele>
        <time>2018-12-29T11:41:35Z</time>
      </trkpt>
      <trkpt lat="36.742740" lon="-119.038500">
        <ele>1418.496</ele>
        <time>2018-12-29T11:41:55Z</time>
      </trkpt>
      <trkpt lat="36.742760" lon="-119.038440">
        <ele>1418.526</ele>
        <time>2018-12-29T11:42:15Z</time>
      </trkpt>
      <trkpt lat="36.742780" lon="-119.038380">
        <ele>1418.592</ele>
        <time>2018-12-29T11:42:35Z</time>
      </trkpt>
      <trkpt lat="36.742810" lon="-119.038320">
        <ele>1418.941</ele>
        <time>2018-12-29T11:42:55Z</time>
      </trkpt>
      <trkpt lat="36.742860" lon="-119.038190">
        <ele>1419.648</ele>
        <time>2018-12-29T11:43:15Z</time>
      </trkpt>
      <trkpt lat="36.742900" lon="-119.038120">
        <ele>1422.561</ele>
        <time>2018-12-29T11:43:35Z</time>
      </trkpt>
      <trkpt lat="36.742950" lon="-119.038010">
        <ele>1425.517</ele>
        <time>2018-12-29T11:43:55Z</time>
      </trkpt>
      <trkpt lat="36.742990" lon="-119.037950">
        <ele>1426.408</ele>
        <time>2018-12-29T11:44:15Z</time>
      </trkpt>
      <trkpt lat="36.743030" lon="-119.037880">
        <ele>1426.417</ele>
        <time>2018-12-29T11:44:35Z</time>
      </trkpt>
      <trkpt lat="36.743070" lon="-119.037830">
        <ele>1426.325</ele>
        <time>2018-12-29T11:44:55Z</time>
      </trkpt>
      <trkpt lat="36.743090" lon="-119.037800">
        <ele>1426.340</ele>
        <time>2018-12-29T11:45:15Z</time>
      </trkpt>
      <trkpt lat="36.743120" lon="-119.037760">
        <ele>1426.460</ele>
        <time>2018-12-29T11:45:35Z</time>
      </trkpt>
      <trkpt lat="36.743150" lon="-119.037730">
        <ele>1426.774</ele>
        <time>2018-12-29T11:45:55Z</time>
      </trkpt>
      <trkpt lat="36.743180" lon="-119.037700">
        <ele>1427.124</ele>
        <time>2018-12-29T11:46:15Z</time>
      </trkpt>
      <trkpt lat="36.743230" lon="-119.037650">
        <ele>1427.330</ele>
        <time>2018-12-29T11:46:35Z</time>
      </trkpt>
      <trkpt lat="36.743270" lon="-119.037620">
        <ele>1426.659</ele>
        <time>2018-12-29T11:46:55Z</time>
      </trkpt>
      <trkpt lat="36.743340" lon="-119.037550">
        <ele>1424.796</ele>
        <time>2018-12-29T11:47:15Z</time>
      </trkpt>
      <trkpt lat="36.743470" lon="-119.037440">
        <ele>1421.831</ele>
        <time>2018-12-29T11:47:35Z</time>
      </trkpt>
      <trkpt lat="36.743540" lon="-119.037380">
        <ele>1421.524</ele>
        <time>2018-12-29T11:47:55Z</time>
      </trkpt>
      <trkpt lat="36.743640" lon="-119.037280">
        <ele>1421.108</ele>
        <time>2018-12-29T11:48:15Z</time>
      </trkpt>
      <trkpt lat="36.743720" lon="-119.037200">
        <ele>1421.682</ele>
        <time>2018-12-29T11:48:35Z</time>
      </trkpt>
      <trkpt lat="36.743760" lon="-119.037160">
        <ele>1422.020</ele>
        <time>2018-12-29T11:48:55Z</time>
      </trkpt>
      <trkpt lat="36.743810" lon="-119.037090">
        <ele>1422.425</ele>
        <time>2018-12-29T11:49:15Z</time>
      </trkpt>
      <trkpt lat="36.743860" lon="-119.037010">
        <ele>1422.945</ele>
        <time>2018-12-29T11:49:35Z</time>
      </trkpt>
      <trkpt lat="36.743880" lon="-119.036980">
        <ele>1423.139</ele>
        <time>2018-12-29T11:49:55Z</time>
      </trkpt>
      <trkpt lat="36.743900" lon="-119.036950">
        <ele>1423.399</ele>
        <time>2018-12-29T11:50:15Z</time>
      </trkpt>
      <trkpt lat="36.743920" lon="-119.036900">
        <ele>1423.315</ele>
        <time>2018-12-29T11:50:35Z</time>
      </trkpt>
      <trkpt lat="36.743940" lon="-119.036850">
        <ele>1423.354</ele>
        <time>2018-12-29T11:50:55Z</time>
      </trkpt>
      <trkpt lat="36.743980" lon="-119.036760">
        <ele>1423.463</ele>
        <time>2018-12-29T11:51:15Z</time>
      </trkpt>
      <trkpt lat="36.744000" lon="-119.036680">
        <ele>1423.244</ele>
        <time>2018-12-29T11:51:35Z</time>
      </trkpt>
      <trkpt lat="36.744030" lon="-119.036590">
        <ele>1423.218</ele>
        <time>2018-12-29T11:51:55Z</time>
      </trkpt>
      <trkpt lat="36.744050" lon="-119.036510">
        <ele>1423.108</ele>
        <time>2018-12-29T11:52:15Z</time>
      </trkpt>
      <trkpt lat="36.744060" lon="-119.036420">
        <ele>1423.089</ele>
        <time>2018-12-29T11:52:35Z</time>
      </trkpt>
      <trkpt lat="36.744070" lon="-119.036340">
        <ele>1422.987</ele>
        <time>2018-12-29T11:52:55Z</time>
      </trkpt>
      <trkpt lat="36.744080" lon="-119.036270">
        <ele>1422.852</ele>
        <time>2018-12-29T11:53:15Z</time>
      </trkpt>
      <trkpt lat="36.744080" lon="-119.036220">
        <ele>1423.372</ele>
        <time>2018-12-29T11:53:35Z</time>
      </trkpt>
      <trkpt lat="36.744080" lon="-119.036120">
        <ele>1425.486</ele>
        <time>2018-12-29T11:53:55Z</time>
      </trkpt>
      <trkpt lat="36.744070" lon="-119.036030">
        <ele>1427.316</ele>
        <time>2018-12-29T11:54:15Z</time>
      </trkpt>
      <trkpt lat="36.744060" lon="-119.035960">
        <ele>1428.712</ele>
        <time>2018-12-29T11:54:35Z</time>
      </trkpt>
      <trkpt lat="36.744050" lon="-119.035900">
        <ele>1429.651</ele>
        <time>2018-12-29T11:54:55Z</time>
      </trkpt>
      <trkpt lat="36.744030" lon="-119.035820">
        <ele>1430.755</ele>
        <time>2018-12-29T11:55:15Z</time>
      </trkpt>
      <trkpt lat="36.744010" lon="-119.035740">
        <ele>1431.607</ele>
        <time>2018-12-29T11:55:35Z</time>
      </trkpt>
      <trkpt lat="36.743990" lon="-119.035670">
        <ele>1432.417</ele>
        <time>2018-12-29T11:55:55Z</time>
      </trkpt>
      <trkpt lat="36.743970" lon="-119.035610">
        <ele>1433.208</ele>
        <time>2018-12-29T11:56:15Z</time>
      </trkpt>
      <trkpt lat="36.743950" lon="-119.035560">
        <ele>1433.798</ele>
        <time>2018-12-29T11:56:35Z</time>
      </trkpt>
      <trkpt lat="36.743940" lon="-119.035520">
        <ele>1434.236</ele>
        <time>2018-12-29T11:56:55Z</time>
      </trkpt>
      <trkpt lat="36.743920" lon="-119.035480">
        <ele>1434.511</ele>
        <time>2018-12-29T11:57:15Z</time>
      </trkpt>
      <trkpt lat="36.743890" lon="-119.035420">
        <ele>1434.891</ele>
        <time>2018-12-29T11:57:35Z</time>
      </trkpt>
      <trkpt lat="36.743850" lon="-119.035350">
        <ele>1434.885</ele>
        <time>2018-12-29T11:57:55Z</time>
      </trkpt>
      <trkpt lat="36.743830" lon="-119.035300">
        <ele>1435.015</ele>
        <time>2018-12-29T11:58:15Z</time>
      </trkpt>
      <trkpt lat="36.743800" lon="-119.035250">
        <ele>1434.811</ele>
        <time>2018-12-29T11:58:35Z</time>
      </trkpt>
      <trkpt lat="36.743760" lon="-119.035190">
        <ele>1434.560</ele>
        <time>2018-12-29T11:58:55Z</time>
      </trkpt>
      <trkpt lat="36.743640" lon="-119.034990">
        <ele>1433.642</ele>
        <time>2018-12-29T11:59:15Z</time>
      </trkpt>
      <trkpt lat="36.743500" lon="-119.034760">
        <ele>1435.422</ele>
        <time>2018-12-29T11:59:35Z</time>
      </trkpt>
      <trkpt lat="36.743380" lon="-119.034570">
        <ele>1438.314</ele>
        <time>2018-12-29T11:59:55Z</time>
      </trkpt>
      <trkpt lat="36.743330" lon="-119.034490">
        <ele>1439.608</ele>
        <time>2018-12-29T12:00:15Z</time>
      </trkpt>
      <trkpt lat="36.743290" lon="-119.034410">
        <ele>1440.817</ele>
        <time>2018-12-29T12:00:35Z</time>
      </trkpt>
      <trkpt lat="36.743250" lon="-119.034350">
        <ele>1441.525</ele>
        <time>2018-12-29T12:00:55Z</time>
      </trkpt>
      <trkpt lat="36.743210" lon="-119.034290">
        <ele>1442.080</ele>
        <time>2018-12-29T12:01:15Z</time>
      </trkpt>
      <trkpt lat="36.743180" lon="-119.034240">
        <ele>1442.340</ele>
        <time>2018-12-29T12:01:35Z</time>
      </trkpt>
      <trkpt lat="36.743140" lon="-119.034190">
        <ele>1442.524</ele>
        <time>2018-12-29T12:01:55Z</time>
      </trkpt>
      <trkpt lat="36.743080" lon="-119.034110">
        <ele>1442.964</ele>
        <time>2018-12-29T12:02:15Z</time>
      </trkpt>
      <trkpt lat="36.743040" lon="-119.034050">
        <ele>1443.490</ele>
        <time>2018-12-29T12:02:35Z</time>
      </trkpt>
      <trkpt lat="36.742990" lon="-119.033990">
        <ele>1443.719</ele>
        <time>2018-12-29T12:02:55Z</time>
      </trkpt>
      <trkpt lat="36.742920" lon="-119.033900">
        <ele>1444.396</ele>
        <time>2018-12-29T12:03:15Z</time>
      </trkpt>
      <trkpt lat="36.742850" lon="-119.033820">
        <ele>1445.331</ele>
        <time>2018-12-29T12:03:35Z</time>
      </trkpt>
      <trkpt lat="36.742780" lon="-119.033750">
        <ele>1446.024</ele>
        <time>2018-12-29T12:03:55Z</time>
      </trkpt>
      <trkpt lat="36.742720" lon="-119.033690">
        <ele>1446.608</ele>
        <time>2018-12-29T12:04:15Z</time>
      </trkpt>
      <trkpt lat="36.742680" lon="-119.033650">
        <ele>1447.152</ele>
        <time>2018-12-29T12:04:35Z</time>
      </trkpt>
      <trkpt lat="36.742640" lon="-119.033610">
        <ele>1447.660</ele>
        <time>2018-12-29T12:04:55Z</time>
      </trkpt>
      <trkpt lat="36.742570" lon="-119.033550">
        <ele>1447.765</ele>
        <time>2018-12-29T12:05:15Z</time>
      </trkpt>
      <trkpt lat="36.742470" lon="-119.033460">
        <ele>1447.545</ele>
        <time>2018-12-29T12:05:35Z</time>
      </trkpt>
      <trkpt lat="36.742340" lon="-119.033350">
        <ele>1446.799</ele>
        <time>2018-12-29T12:05:55Z</time>
      </trkpt>
      <trkpt lat="36.742090" lon="-119.033140">
        <ele>1445.549</ele>
        <time>2018-12-29T12:06:15Z</time>
      </trkpt>
      <trkpt lat="36.741990" lon="-119.033040">
        <ele>1448.235</ele>
        <time>2018-12-29T12:06:35Z</time>
      </trkpt>
      <trkpt lat="36.741930" lon="-119.032990">
        <ele>1449.614</ele>
        <time>2018-12-29T12:06:55Z</time>
      </trkpt>
      <trkpt lat="36.741900" lon="-119.032960">
        <ele>1450.466</ele>
        <time>2018-12-29T12:07:15Z</time>
      </trkpt>
      <trkpt lat="36.741860" lon="-119.032920">
        <ele>1451.429</ele>
        <time>2018-12-29T12:07:35Z</time>
      </trkpt>
      <trkpt lat="36.741830" lon="-119.032880">
        <ele>1452.721</ele>
        <time>2018-12-29T12:07:55Z</time>
      </trkpt>
      <trkpt lat="36.741780" lon="-119.032830">
        <ele>1454.108</ele>
        <time>2018-12-29T12:08:15Z</time>
      </trkpt>
      <trkpt lat="36.741740" lon="-119.032770">
        <ele>1455.319</ele>
        <time>2018-12-29T12:08:35Z</time>
      </trkpt>
      <trkpt lat="36.741710" lon="-119.032710">
        <ele>1456.227</ele>
        <time>2018-12-29T12:08:55Z</time>
      </trkpt>
      <trkpt lat="36.741670" lon="-119.032630">
        <ele>1456.982</ele>
        <time>2018-12-29T12:09:15Z</time>
      </trkpt>
      <trkpt lat="36.741630" lon="-119.032560">
        <ele>1456.982</ele>
        <time>2018-12-29T12:09:35Z</time>
      </trkpt>
      <trkpt lat="36.741600" lon="-119.032490">
        <ele>1457.126</ele>
        <time>2018-12-29T12:09:55Z</time>
      </trkpt>
      <trkpt lat="36.741580" lon="-119.032440">
        <ele>1457.166</ele>
        <time>2018-12-29T12:10:15Z</time>
      </trkpt>
      <trkpt lat="36.741560" lon="-119.032390">
        <ele>1457.132</ele>
        <time>2018-12-29T12:10:35Z</time>
      </trkpt>
      <trkpt lat="36.741550" lon="-119.032340">
        <ele>1457.321</ele>
        <time>2018-12-29T12:10:55Z</time>
      </trkpt>
      <trkpt lat="36.741530" lon="-119.032280">
        <ele>1457.029</ele>
        <time>2018-12-29T12:11:15Z</time>
      </trkpt>
      <trkpt lat="36.741520" lon="-119.032210">
        <ele>1457.100</ele>
        <time>2018-12-29T12:11:35Z</time>
      </trkpt>
      <trkpt lat="36.741510" lon="-119.032150">
        <ele>1457.120</ele>
        <time>2018-12-29T12:11:55Z</time>
      </trkpt>
      <trkpt lat="36.741500" lon="-119.032100">
        <ele>1457.008</ele>
        <time>2018-12-29T12:12:15Z</time>
      </trkpt>
      <trkpt lat="36.741490" lon="-119.032050">
        <ele>1456.925</ele>
        <time>2018-12-29T12:12:35Z</time>
      </trkpt>
      <trkpt lat="36.741490" lon="-119.032000">
        <ele>1457.013</ele>
        <time>2018-12-29T12:12:55Z</time>
      </trkpt>
      <trkpt lat="36.741490" lon="-119.031940">
        <ele>1457.128</ele>
        <time>2018-12-29T12:13:15Z</time>
      </trkpt>
      <trkpt lat="36.741480" lon="-119.031890">
        <ele>1456.848</ele>
        <time>2018-12-29T12:13:35Z</time>
      </trkpt>
      <trkpt lat="36.741480" lon="-119.031680">
        <ele>1457.372</ele>
        <time>2018-12-29T12:13:55Z</time>
      </trkpt>
      <trkpt lat="36.741480" lon="-119.031540">
        <ele>1457.722</ele>
        <time>2018-12-29T12:14:15Z</time>
      </trkpt>
      <trkpt lat="36.741480" lon="-119.030700">
        <ele>1459.498</ele>
        <time>2018-12-29T12:14:35Z</time>
      </trkpt>
      <trkpt lat="36.741490" lon="-119.029680">
        <ele>1465.347</ele>
        <time>2018-12-29T12:14:55Z</time>
      </trkpt>
      <trkpt lat="36.741490" lon="-119.029020">
        <ele>1469.934</ele>
        <time>2018-12-29T12:15:15Z</time>
      </trkpt>
      <trkpt lat="36.741490" lon="-119.028590">
        <ele>1473.455</ele>
        <time>2018-12-29T12:15:35Z</time>
      </trkpt>
      <trkpt lat="36.741480" lon="-119.028420">
        <ele>1475.910</ele>
        <time>2018-12-29T12:15:55Z</time>
      </trkpt>
      <trkpt lat="36.741480" lon="-119.028350">
        <ele>1477.408</ele>
        <time>2018-12-29T12:16:15Z</time>
      </trkpt>
      <trkpt lat="36.741470" lon="-119.028300">
        <ele>1478.346</ele>
        <time>2018-12-29T12:16:35Z</time>
      </trkpt>
      <trkpt lat="36.741470" lon="-119.028250">
        <ele>1479.314</ele>
        <time>2018-12-29T12:16:55Z</time>
      </trkpt>
      <trkpt lat="36.741460" lon="-119.028210">
        <ele>1480.039</ele>
        <time>2018-12-29T12:17:15Z</time>
      </trkpt>
      <trkpt lat="36.741450" lon="-119.028150">
        <ele>1480.759</ele>
        <time>2018-12-29T12:17:35Z</time>
      </trkpt>
      <trkpt lat="36.741440" lon="-119.028080">
        <ele>1481.263</ele>
        <time>2018-12-29T12:17:55Z</time>
      </trkpt>
      <trkpt lat="36.741410" lon="-119.027980">
        <ele>1481.773</ele>
        <time>2018-12-29T12:18:15Z</time>
      </trkpt>
      <trkpt lat="36.741370" lon="-119.027890">
        <ele>1481.989</ele>
        <time>2018-12-29T12:18:35Z</time>
      </trkpt>
      <trkpt lat="36.741340" lon="-119.027810">
        <ele>1482.488</ele>
        <time>2018-12-29T12:18:55Z</time>
      </trkpt>
      <trkpt lat="36.741300" lon="-119.027730">
        <ele>1482.986</ele>
        <time>2018-12-29T12:19:15Z</time>
      </trkpt>
      <trkpt lat="36.741260" lon="-119.027650">
        <ele>1483.560</ele>
        <time>2018-12-29T12:19:35Z</time>
      </trkpt>
      <trkpt lat="36.741220" lon="-119.027600">
        <ele>1483.626</ele>
        <time>2018-12-29T12:19:55Z</time>
      </trkpt>
      <trkpt lat="36.741180" lon="-119.027560">
        <ele>1483.408</ele>
        <time>2018-12-29T12:20:15Z</time>
      </trkpt>
      <trkpt lat="36.741150" lon="-119.027520">
        <ele>1483.481</ele>
        <time>2018-12-29T12:20:35Z</time>
      </trkpt>
      <trkpt lat="36.741110" lon="-119.027480">
        <ele>1483.129</ele>
        <time>2018-12-29T12:20:55Z</time>
      </trkpt>
      <trkpt lat="36.741050" lon="-119.027430">
        <ele>1482.474</ele>
        <time>2018-12-29T12:21:15Z</time>
      </trkpt>
      <trkpt lat="36.741020" lon="-119.027410">
        <ele>1481.914</ele>
        <time>2018-12-29T12:21:35Z</time>
      </trkpt>
      <trkpt lat="36.740990" lon="-119.027380">
        <ele>1481.598</ele>
        <time>2018-12-29T12:21:55Z</time>
      </trkpt>
      <trkpt lat="36.740940" lon="-119.027360">
        <ele>1481.228</ele>
        <time>2018-12-29T12:22:15Z</time>
      </trkpt>
      <trkpt lat="36.740900" lon="-119.027330">
        <ele>1481.524</ele>
        <time>2018-12-29T12:22:35Z</time>
      </trkpt>
      <trkpt lat="36.740860" lon="-119.027310">
        <ele>1481.823</ele>
        <time>2018-12-29T12:22:55Z</time>
      </trkpt>
      <trkpt lat="36.740810" lon="-119.027290">
        <ele>1482.216</ele>
        <time>2018-12-29T12:23:15Z</time>
      </trkpt>
      <trkpt lat="36.740740" lon="-119.027260">
        <ele>1483.076</ele>
        <time>2018-12-29T12:23:35Z</time>
      </trkpt>
      <trkpt lat="36.740670" lon="-119.027240">
        <ele>1483.713</ele>
        <time>2018-12-29T12:23:55Z</time>
      </trkpt>
      <trkpt lat="36.740400" lon="-119.027160">
        <ele>1486.308</ele>
        <time>2018-12-29T12:24:15Z</time>
      </trkpt>
      <trkpt lat="36.740270" lon="-119.027120">
        <ele>1488.314</ele>
        <time>2018-12-29T12:24:35Z</time>
      </trkpt>
      <trkpt lat="36.740210" lon="-119.027090">
        <ele>1489.852</ele>
        <time>2018-12-29T12:24:55Z</time>
      </trkpt>
      <trkpt lat="36.740170" lon="-119.027070">
        <ele>1491.087</ele>
        <time>2018-12-29T12:25:15Z</time>
      </trkpt>
      <trkpt lat="36.740140" lon="-119.027060">
        <ele>1491.647</ele>
        <time>2018-12-29T12:25:35Z</time>
      </trkpt>
      <trkpt lat="36.740100" lon="-119.027040">
        <ele>1491.811</ele>
        <time>2018-12-29T12:25:55Z</time>
      </trkpt>
      <trkpt lat="36.740060" lon="-119.027020">
        <ele>1491.941</ele>
        <time>2018-12-29T12:26:15Z</time>
      </trkpt>
      <trkpt lat="36.740010" lon="-119.026990">
        <ele>1492.247</ele>
        <time>2018-12-29T12:26:35Z</time>
      </trkpt>
      <trkpt lat="36.739970" lon="-119.026970">
        <ele>1492.266</ele>
        <time>2018-12-29T12:26:55Z</time>
      </trkpt>
      <trkpt lat="36.739940" lon="-119.026950">
        <ele>1492.453</ele>
        <time>2018-12-29T12:27:15Z</time>
      </trkpt>
      <trkpt lat="36.739910" lon="-119.026930">
        <ele>1492.504</ele>
        <time>2018-12-29T12:27:35Z</time>
      </trkpt>
      <trkpt lat="36.739860" lon="-119.026890">
        <ele>1492.914</ele>
        <time>2018-12-29T12:27:55Z</time>
      </trkpt>
      <trkpt lat="36.739780" lon="-119.026830">
        <ele>1493.408</ele>
        <time>2018-12-29T12:28:15Z</time>
      </trkpt>
      <trkpt lat="36.739670" lon="-119.026730">
        <ele>1493.778</ele>
        <time>2018-12-29T12:28:35Z</time>
      </trkpt>
      <trkpt lat="36.739560" lon="-119.026630">
        <ele>1493.376</ele>
        <time>2018-12-29T12:28:55Z</time>
      </trkpt>
      <trkpt lat="36.739170" lon="-119.026270">
        <ele>1494.081</ele>
        <time>2018-12-29T12:29:15Z</time>
      </trkpt>
      <trkpt lat="36.739000" lon="-119.026120">
        <ele>1495.281</ele>
        <time>2018-12-29T12:29:35Z</time>
      </trkpt>
      <trkpt lat="36.738900" lon="-119.026020">
        <ele>1495.985</ele>
        <time>2018-12-29T12:29:55Z</time>
      </trkpt>
      <trkpt lat="36.738840" lon="-119.025970">
        <ele>1496.165</ele>
        <time>2018-12-29T12:30:15Z</time>
      </trkpt>
      <trkpt lat="36.738790" lon="-119.025910">
        <ele>1496.821</ele>
        <time>2018-12-29T12:30:35Z</time>
      </trkpt>
      <trkpt lat="36.738750" lon="-119.025860">
        <ele>1497.140</ele>
        <time>2018-12-29T12:30:55Z</time>
      </trkpt>
      <trkpt lat="36.738710" lon="-119.025820">
        <ele>1497.272</ele>
        <time>2018-12-29T12:31:15Z</time>
      </trkpt>
      <trkpt lat="36.738680" lon="-119.025780">
        <ele>1497.613</ele>
        <time>2018-12-29T12:31:35Z</time>
      </trkpt>
      <trkpt lat="36.738640" lon="-119.025730">
        <ele>1498.114</ele>
        <time>2018-12-29T12:31:55Z</time>
      </trkpt>
      <trkpt lat="36.738600" lon="-119.025680">
        <ele>1498.908</ele>
        <time>2018-12-29T12:32:15Z</time>
      </trkpt>
      <trkpt lat="36.738570" lon="-119.025630">
        <ele>1500.220</ele>
        <time>2018-12-29T12:32:35Z</time>
      </trkpt>
      <trkpt lat="36.738530" lon="-119.025570">
        <ele>1501.378</ele>
        <time>2018-12-29T12:32:55Z</time>
      </trkpt>
      <trkpt lat="36.738500" lon="-119.025500">
        <ele>1502.893</ele>
        <time>2018-12-29T12:33:15Z</time>
      </trkpt>
      <trkpt lat="36.738460" lon="-119.025420">
        <ele>1504.023</ele>
        <time>2018-12-29T12:33:35Z</time>
      </trkpt>
      <trkpt lat="36.738430" lon="-119.025360">
        <ele>1504.657</ele>
        <time>2018-12-29T12:33:55Z</time>
      </trkpt>
      <trkpt lat="36.738410" lon="-119.025300">
        <ele>1505.597</ele>
        <time>2018-12-29T12:34:15Z</time>
      </trkpt>
      <trkpt lat="36.738380" lon="-119.025220">
        <ele>1506.523</ele>
        <time>2018-12-29T12:34:35Z</time>
      </trkpt>
      <trkpt lat="36.738350" lon="-119.025140">
        <ele>1507.562</ele>
        <time>2018-12-29T12:34:55Z</time>
      </trkpt>
      <trkpt lat="36.738330" lon="-119.025060">
        <ele>1508.184</ele>
        <time>2018-12-29T12:35:15Z</time>
      </trkpt>
      <trkpt lat="36.738310" lon="-119.024980">
        <ele>1508.707</ele>
        <time>2018-12-29T12:35:35Z</time>
      </trkpt>
      <trkpt lat="36.738290" lon="-119.024890">
        <ele>1509.417</ele>
        <time>2018-12-29T12:35:55Z</time>
      </trkpt>
      <trkpt lat="36.738220" lon="-119.024510">
        <ele>1507.708</ele>
        <time>2018-12-29T12:36:15Z</time>
      </trkpt>
      <trkpt lat="36.738160" lon="-119.024240">
        <ele>1507.051</ele>
        <time>2018-12-29T12:36:35Z</time>
      </trkpt>
      <trkpt lat="36.738120" lon="-119.024020">
        <ele>1507.649</ele>
        <time>2018-12-29T12:36:55Z</time>
      </trkpt>
      <trkpt lat="36.738100" lon="-119.023940">
        <ele>1507.654</ele>
        <time>2018-12-29T12:37:15Z</time>
      </trkpt>
      <trkpt lat="36.738080" lon="-119.023880">
        <ele>1507.544</ele>
        <time>2018-12-29T12:37:35Z</time>
      </trkpt>
      <trkpt lat="36.738060" lon="-119.023830">
        <ele>1507.448</ele>
        <time>2018-12-29T12:37:55Z</time>
      </trkpt>
      <trkpt lat="36.738050" lon="-119.023780">
        <ele>1507.898</ele>
        <time>2018-12-29T12:38:15Z</time>
      </trkpt>
      <trkpt lat="36.738030" lon="-119.023750">
        <ele>1507.674</ele>
        <time>2018-12-29T12:38:35Z</time>
      </trkpt>
      <trkpt lat="36.738020" lon="-119.023710">
        <ele>1508.443</ele>
        <time>2018-12-29T12:38:55Z</time>
      </trkpt>
      <trkpt lat="36.738000" lon="-119.023690">
        <ele>1508.346</ele>
        <time>2018-12-29T12:39:15Z</time>
      </trkpt>
      <trkpt lat="36.737980" lon="-119.023630">
        <ele>1509.288</ele>
        <time>2018-12-29T12:39:35Z</time>
      </trkpt>
      <trkpt lat="36.737950" lon="-119.023580">
        <ele>1509.216</ele>
        <time>2018-12-29T12:39:55Z</time>
      </trkpt>
      <trkpt lat="36.737910" lon="-119.023510">
        <ele>1509.108</ele>
        <time>2018-12-29T12:40:15Z</time>
      </trkpt>
      <trkpt lat="36.737870" lon="-119.023460">
        <ele>1509.987</ele>
        <time>2018-12-29T12:40:35Z</time>
      </trkpt>
      <trkpt lat="36.737830" lon="-119.023400">
        <ele>1511.795</ele>
        <time>2018-12-29T12:40:55Z</time>
      </trkpt>
      <trkpt lat="36.737800" lon="-119.023370">
        <ele>1512.580</ele>
        <time>2018-12-29T12:41:15Z</time>
      </trkpt>
      <trkpt lat="36.737770" lon="-119.023340">
        <ele>1513.420</ele>
        <time>2018-12-29T12:41:35Z</time>
      </trkpt>
      <trkpt lat="36.737740" lon="-119.023310">
        <ele>1514.274</ele>
        <time>2018-12-29T12:41:55Z</time>
      </trkpt>
      <trkpt lat="36.737700" lon="-119.023270">
        <ele>1515.464</ele>
        <time>2018-12-29T12:42:15Z</time>
      </trkpt>
      <trkpt lat="36.737660" lon="-119.023240">
        <ele>1516.370</ele>
        <time>2018-12-29T12:42:35Z</time>
      </trkpt>
      <trkpt lat="36.737620" lon="-119.023210">
        <ele>1517.129</ele>
        <time>2018-12-29T12:42:55Z</time>
      </trkpt>
      <trkpt lat="36.737580" lon="-119.023190">
        <ele>1517.748</ele>
        <time>2018-12-29T12:43:15Z</time>
      </trkpt>
      <trkpt lat="36.737530" lon="-119.023150">
        <ele>1518.761</ele>
        <time>2018-12-29T12:43:35Z</time>
      </trkpt>
      <trkpt lat="36.737490" lon="-119.023130">
        <ele>1519.117</ele>
        <time>2018-12-29T12:43:55Z</time>
      </trkpt>
      <trkpt lat="36.737460" lon="-119.023120">
        <ele>1519.208</ele>
        <time>2018-12-29T12:44:15Z</time>
      </trkpt>
      <trkpt lat="36.737440" lon="-119.023110">
        <ele>1519.377</ele>
        <time>2018-12-29T12:44:35Z</time>
      </trkpt>
      <trkpt lat="36.737380" lon="-119.023080">
        <ele>1519.885</ele>
        <time>2018-12-29T12:44:55Z</time>
      </trkpt>
      <trkpt lat="36.737350" lon="-119.023070">
        <ele>1519.970</ele>
        <time>2018-12-29T12:45:15Z</time>
      </trkpt>
      <trkpt lat="36.737320" lon="-119.023060">
        <ele>1520.120</ele>
        <time>2018-12-29T12:45:35Z</time>
      </trkpt>
      <trkpt lat="36.737290" lon="-119.023050">
        <ele>1520.364</ele>
        <time>2018-12-29T12:45:55Z</time>
      </trkpt>
      <trkpt lat="36.737260" lon="-119.023050">
        <ele>1520.264</ele>
        <time>2018-12-29T12:46:15Z</time>
      </trkpt>
      <trkpt lat="36.737210" lon="-119.023040">
        <ele>1520.390</ele>
        <time>2018-12-29T12:46:35Z</time>
      </trkpt>
      <trkpt lat="36.737170" lon="-119.023040">
        <ele>1520.299</ele>
        <time>2018-12-29T12:46:55Z</time>
      </trkpt>
      <trkpt lat="36.737090" lon="-119.023040">
        <ele>1519.993</ele>
        <time>2018-12-29T12:47:15Z</time>
      </trkpt>
      <trkpt lat="36.736990" lon="-119.023040">
        <ele>1519.465</ele>
        <time>2018-12-29T12:47:35Z</time>
      </trkpt>
      <trkpt lat="36.736940" lon="-119.023040">
        <ele>1519.121</ele>
        <time>2018-12-29T12:47:55Z</time>
      </trkpt>
      <trkpt lat="36.736810" lon="-119.023050">
        <ele>1518.108</ele>
        <time>2018-12-29T12:48:15Z</time>
      </trkpt>
      <trkpt lat="36.736680" lon="-119.023070">
        <ele>1517.632</ele>
        <time>2018-12-29T12:48:35Z</time>
      </trkpt>
      <trkpt lat="36.736580" lon="-119.023070">
        <ele>1517.780</ele>
        <time>2018-12-29T12:48:55Z</time>
      </trkpt>
      <trkpt lat="36.736540" lon="-119.023070">
        <ele>1517.835</ele>
        <time>2018-12-29T12:49:15Z</time>
      </trkpt>
      <trkpt lat="36.736490" lon="-119.023080">
        <ele>1517.385</ele>
        <time>2018-12-29T12:49:35Z</time>
      </trkpt>
      <trkpt lat="36.736450" lon="-119.023070">
        <ele>1517.549</ele>
        <time>2018-12-29T12:49:55Z</time>
      </trkpt>
      <trkpt lat="36.736400" lon="-119.023070">
        <ele>1517.339</ele>
        <time>2018-12-29T12:50:15Z</time>
      </trkpt>
      <trkpt lat="36.736330" lon="-119.023060">
        <ele>1517.385</ele>
        <time>2018-12-29T12:50:35Z</time>
      </trkpt>
      <trkpt lat="36.736260" lon="-119.023050">
        <ele>1517.424</ele>
        <time>2018-12-29T12:50:55Z</time>
      </trkpt>
      <trkpt lat="36.736210" lon="-119.023040">
        <ele>1517.515</ele>
        <time>2018-12-29T12:51:15Z</time>
      </trkpt>
      <trkpt lat="36.736160" lon="-119.023020">
        <ele>1518.065</ele>
        <time>2018-12-29T12:51:35Z</time>
      </trkpt>
      <trkpt lat="36.736120" lon="-119.023010">
        <ele>1518.111</ele>
        <time>2018-12-29T12:51:55Z</time>
      </trkpt>
      <trkpt lat="36.736080" lon="-119.022990">
        <ele>1518.608</ele>
        <time>2018-12-29T12:52:15Z</time>
      </trkpt>
      <trkpt lat="36.736020" lon="-119.022970">
        <ele>1518.914</ele>
        <time>2018-12-29T12:52:35Z</time>
      </trkpt>
      <trkpt lat="36.735950" lon="-119.022930">
        <ele>1520.042</ele>
        <time>2018-12-29T12:52:55Z</time>
      </trkpt>
      <trkpt lat="36.735890" lon="-119.022900">
        <ele>1521.567</ele>
        <time>2018-12-29T12:53:15Z</time>
      </trkpt>
      <trkpt lat="36.735840" lon="-119.022870">
        <ele>1522.957</ele>
        <time>2018-12-29T12:53:35Z</time>
      </trkpt>
      <trkpt lat="36.735810" lon="-119.022850">
        <ele>1523.761</ele>
        <time>2018-12-29T12:53:55Z</time>
      </trkpt>
      <trkpt lat="36.735780" lon="-119.022830">
        <ele>1524.541</ele>
        <time>2018-12-29T12:54:15Z</time>
      </trkpt>
      <trkpt lat="36.735740" lon="-119.022800">
        <ele>1525.547</ele>
        <time>2018-12-29T12:54:35Z</time>
      </trkpt>
      <trkpt lat="36.735710" lon="-119.022770">
        <ele>1526.436</ele>
        <time>2018-12-29T12:54:55Z</time>
      </trkpt>
      <trkpt lat="36.735660" lon="-119.022740">
        <ele>1526.716</ele>
        <time>2018-12-29T12:55:15Z</time>
      </trkpt>
      <trkpt lat="36.735580" lon="-119.022660">
        <ele>1528.076</ele>
        <time>2018-12-29T12:55:35Z</time>
      </trkpt>
      <trkpt lat="36.735360" lon="-119.022470">
        <ele>1530.313</ele>
        <time>2018-12-29T12:55:55Z</time>
      </trkpt>
      <trkpt lat="36.735220" lon="-119.022350">
        <ele>1531.508</ele>
        <time>2018-12-29T12:56:15Z</time>
      </trkpt>
      <trkpt lat="36.734950" lon="-119.022110">
        <ele>1532.864</ele>
        <time>2018-12-29T12:56:35Z</time>
      </trkpt>
      <trkpt lat="36.734820" lon="-119.021990">
        <ele>1534.292</ele>
        <time>2018-12-29T12:56:55Z</time>
      </trkpt>
      <trkpt lat="36.734700" lon="-119.021890">
        <ele>1536.237</ele>
        <time>2018-12-29T12:57:15Z</time>
      </trkpt>
      <trkpt lat="36.734630" lon="-119.021830">
        <ele>1537.957</ele>
        <time>2018-12-29T12:57:35Z</time>
      </trkpt>
      <trkpt lat="36.734530" lon="-119.021730">
        <ele>1538.071</ele>
        <time>2018-12-29T12:57:55Z</time>
      </trkpt>
      <trkpt lat="36.734430" lon="-119.021640">
        <ele>1537.621</ele>
        <time>2018-12-29T12:58:15Z</time>
      </trkpt>
      <trkpt lat="36.734390" lon="-119.021590">
        <ele>1538.477</ele>
        <time>2018-12-29T12:58:35Z</time>
      </trkpt>
      <trkpt lat="36.734340" lon="-119.021530">
        <ele>1539.916</ele>
        <time>2018-12-29T12:58:55Z</time>
      </trkpt>
      <trkpt lat="36.734260" lon="-119.021450">
        <ele>1539.851</ele>
        <time>2018-12-29T12:59:15Z</time>
      </trkpt>
      <trkpt lat="36.734200" lon="-119.021370">
        <ele>1540.201</ele>
        <time>2018-12-29T12:59:35Z</time>
      </trkpt>
      <trkpt lat="36.733780" lon="-119.020860">
        <ele>1542.611</ele>
        <time>2018-12-29T12:59:55Z</time>
      </trkpt>
      <trkpt lat="36.733520" lon="-119.020540">
        <ele>1542.608</ele>
        <time>2018-12-29T13:00:15Z</time>
      </trkpt>
      <trkpt lat="36.733130" lon="-119.020070">
        <ele>1540.438</ele>
        <time>2018-12-29T13:00:35Z</time>
      </trkpt>
      <trkpt lat="36.732700" lon="-119.019540">
        <ele>1543.976</ele>
        <time>2018-12-29T13:00:55Z</time>
      </trkpt>
      <trkpt lat="36.732330" lon="-119.019090">
        <ele>1544.471</ele>
        <time>2018-12-29T13:01:15Z</time>
      </trkpt>
      <trkpt lat="36.732120" lon="-119.018830">
        <ele>1545.981</ele>
        <time>2018-12-29T13:01:35Z</time>
      </trkpt>
      <trkpt lat="36.731570" lon="-119.018160">
        <ele>1553.865</ele>
        <time>2018-12-29T13:01:55Z</time>
      </trkpt>
      <trkpt lat="36.731140" lon="-119.017650">
        <ele>1556.885</ele>
        <time>2018-12-29T13:02:15Z</time>
      </trkpt>
      <trkpt lat="36.730740" lon="-119.017160">
        <ele>1564.151</ele>
        <time>2018-12-29T13:02:35Z</time>
      </trkpt>
      <trkpt lat="36.730410" lon="-119.016760">
        <ele>1566.580</ele>
        <time>2018-12-29T13:02:55Z</time>
      </trkpt>
      <trkpt lat="36.730270" lon="-119.016590">
        <ele>1566.372</ele>
        <time>2018-12-29T13:03:15Z</time>
      </trkpt>
      <trkpt lat="36.730110" lon="-119.016400">
        <ele>1567.613</ele>
        <time>2018-12-29T13:03:35Z</time>
      </trkpt>
      <trkpt lat="36.729900" lon="-119.016140">
        <ele>1568.614</ele>
        <time>2018-12-29T13:03:55Z</time>
      </trkpt>
      <trkpt lat="36.729820" lon="-119.016040">
        <ele>1568.308</ele>
        <time>2018-12-29T13:04:15Z</time>
      </trkpt>
      <trkpt lat="36.729660" lon="-119.015850">
        <ele>1569.580</ele>
        <time>2018-12-29T13:04:35Z</time>
      </trkpt>
      <trkpt lat="36.729570" lon="-119.015740">
        <ele>1569.468</ele>
        <time>2018-12-29T13:04:55Z</time>
      </trkpt>
      <trkpt lat="36.729520" lon="-119.015680">
        <ele>1569.573</ele>
        <time>2018-12-29T13:05:15Z</time>
      </trkpt>
      <trkpt lat="36.729470" lon="-119.015630">
        <ele>1569.713</ele>
        <time>2018-12-29T13:05:35Z</time>
      </trkpt>
      <trkpt lat="36.729430" lon="-119.015570">
        <ele>1570.227</ele>
        <time>2018-12-29T13:05:55Z</time>
      </trkpt>
      <trkpt lat="36.729390" lon="-119.015530">
        <ele>1569.957</ele>
        <time>2018-12-29T13:06:15Z</time>
      </trkpt>
      <trkpt lat="36.729350" lon="-119.015490">
        <ele>1569.633</ele>
        <time>2018-12-29T13:06:35Z</time>
      </trkpt>
      <trkpt lat="36.729300" lon="-119.015450">
        <ele>1568.812</ele>
        <time>2018-12-29T13:06:55Z</time>
      </trkpt>
      <trkpt lat="36.729250" lon="-119.015410">
        <ele>1569.074</ele>
        <time>2018-12-29T13:07:15Z</time>
      </trkpt>
      <trkpt lat="36.729220" lon="-119.015380">
        <ele>1569.756</ele>
        <time>2018-12-29T13:07:35Z</time>
      </trkpt>
      <trkpt lat="36.729170" lon="-119.015340">
        <ele>1570.321</ele>
        <time>2018-12-29T13:07:55Z</time>
      </trkpt>
      <trkpt lat="36.729110" lon="-119.015300">
        <ele>1570.608</ele>
        <time>2018-12-29T13:08:15Z</time>
      </trkpt>
      <trkpt lat="36.729060" lon="-119.015260">
        <ele>1571.040</ele>
        <time>2018-12-29T13:08:35Z</time>
      </trkpt>
      <trkpt lat="36.728990" lon="-119.015220">
        <ele>1570.968</ele>
        <time>2018-12-29T13:08:55Z</time>
      </trkpt>
      <trkpt lat="36.728950" lon="-119.015200">
        <ele>1570.743</ele>
        <time>2018-12-29T13:09:15Z</time>
      </trkpt>
      <trkpt lat="36.728900" lon="-119.015170">
        <ele>1570.643</ele>
        <time>2018-12-29T13:09:35Z</time>
      </trkpt>
      <trkpt lat="36.728810" lon="-119.015130">
        <ele>1570.197</ele>
        <time>2018-12-29T13:09:55Z</time>
      </trkpt>
      <trkpt lat="36.728770" lon="-119.015110">
        <ele>1570.297</ele>
        <time>2018-12-29T13:10:15Z</time>
      </trkpt>
      <trkpt lat="36.728720" lon="-119.015090">
        <ele>1570.433</ele>
        <time>2018-12-29T13:10:35Z</time>
      </trkpt>
      <trkpt lat="36.728620" lon="-119.015060">
        <ele>1570.712</ele>
        <time>2018-12-29T13:10:55Z</time>
      </trkpt>
      <trkpt lat="36.728530" lon="-119.015030">
        <ele>1571.175</ele>
        <time>2018-12-29T13:11:15Z</time>
      </trkpt>
      <trkpt lat="36.728480" lon="-119.015020">
        <ele>1571.028</ele>
        <time>2018-12-29T13:11:35Z</time>
      </trkpt>
      <trkpt lat="36.728420" lon="-119.015000">
        <ele>1571.420</ele>
        <time>2018-12-29T13:11:55Z</time>
      </trkpt>
      <trkpt lat="36.728220" lon="-119.014950">
        <ele>1572.308</ele>
        <time>2018-12-29T13:12:15Z</time>
      </trkpt>
      <trkpt lat="36.728100" lon="-119.014930">
        <ele>1574.830</ele>
        <time>2018-12-29T13:12:35Z</time>
      </trkpt>
      <trkpt lat="36.728010" lon="-119.014900">
        <ele>1577.828</ele>
        <time>2018-12-29T13:12:55Z</time>
      </trkpt>
      <trkpt lat="36.727960" lon="-119.014890">
        <ele>1579.243</ele>
        <time>2018-12-29T13:13:15Z</time>
      </trkpt>
      <trkpt lat="36.727920" lon="-119.014870">
        <ele>1580.833</ele>
        <time>2018-12-29T13:13:35Z</time>
      </trkpt>
      <trkpt lat="36.727860" lon="-119.014840">
        <ele>1581.717</ele>
        <time>2018-12-29T13:13:55Z</time>
      </trkpt>
      <trkpt lat="36.727810" lon="-119.014820">
        <ele>1582.017</ele>
        <time>2018-12-29T13:14:15Z</time>
      </trkpt>
      <trkpt lat="36.727750" lon="-119.014780">
        <ele>1582.773</ele>
        <time>2018-12-29T13:14:35Z</time>
      </trkpt>
      <trkpt lat="36.727660" lon="-119.014720">
        <ele>1582.932</ele>
        <time>2018-12-29T13:14:55Z</time>
      </trkpt>
      <trkpt lat="36.727570" lon="-119.014660">
        <ele>1582.752</ele>
        <time>2018-12-29T13:15:15Z</time>
      </trkpt>
      <trkpt lat="36.727490" lon="-119.014590">
        <ele>1582.753</ele>
        <time>2018-12-29T13:15:35Z</time>
      </trkpt>
      <trkpt lat="36.727450" lon="-119.014550">
        <ele>1582.808</ele>
        <time>2018-12-29T13:15:55Z</time>
      </trkpt>
      <trkpt lat="36.727400" lon="-119.014510">
        <ele>1582.408</ele>
        <time>2018-12-29T13:16:15Z</time>
      </trkpt>
      <trkpt lat="36.727360" lon="-119.014460">
        <ele>1582.188</ele>
        <time>2018-12-29T13:16:35Z</time>
      </trkpt>
      <trkpt lat="36.727290" lon="-119.014390">
        <ele>1582.696</ele>
        <time>2018-12-29T13:16:55Z</time>
      </trkpt>
      <trkpt lat="36.727240" lon="-119.014320">
        <ele>1583.621</ele>
        <time>2018-12-29T13:17:15Z</time>
      </trkpt>
      <trkpt lat="36.727160" lon="-119.014210">
        <ele>1586.781</ele>
        <time>2018-12-29T13:17:35Z</time>
      </trkpt>
      <trkpt lat="36.727030" lon="-119.014030">
        <ele>1590.255</ele>
        <time>2018-12-29T13:17:55Z</time>
      </trkpt>
      <trkpt lat="36.726950" lon="-119.013930">
        <ele>1592.145</ele>
        <time>2018-12-29T13:18:15Z</time>
      </trkpt>
      <trkpt lat="36.726890" lon="-119.013860">
        <ele>1593.071</ele>
        <time>2018-12-29T13:18:35Z</time>
      </trkpt>
      <trkpt lat="36.726820" lon="-119.013780">
        <ele>1593.530</ele>
        <time>2018-12-29T13:18:55Z</time>
      </trkpt>
      <trkpt lat="36.726730" lon="-119.013690">
        <ele>1594.374</ele>
        <time>2018-12-29T13:19:15Z</time>
      </trkpt>
      <trkpt lat="36.726640" lon="-119.013610">
        <ele>1594.656</ele>
        <time>2018-12-29T13:19:35Z</time>
      </trkpt>
      <trkpt lat="36.726560" lon="-119.013550">
        <ele>1593.921</ele>
        <time>2018-12-29T13:19:55Z</time>
      </trkpt>
      <trkpt lat="36.726430" lon="-119.013470">
        <ele>1593.408</ele>
        <time>2018-12-29T13:20:15Z</time>
      </trkpt>
      <trkpt lat="36.726330" lon="-119.013420">
        <ele>1594.140</ele>
        <time>2018-12-29T13:20:35Z</time>
      </trkpt>
      <trkpt lat="36.726260" lon="-119.013380">
        <ele>1594.538</ele>
        <time>2018-12-29T13:20:55Z</time>
      </trkpt>
      <trkpt lat="36.726180" lon="-119.013350">
        <ele>1596.113</ele>
        <time>2018-12-29T13:21:15Z</time>
      </trkpt>
      <trkpt lat="36.726040" lon="-119.013300">
        <ele>1599.433</ele>
        <time>2018-12-29T13:21:35Z</time>
      </trkpt>
      <trkpt lat="36.725940" lon="-119.013260">
        <ele>1601.127</ele>
        <time>2018-12-29T13:21:55Z</time>
      </trkpt>
      <trkpt lat="36.725820" lon="-119.013200">
        <ele>1602.347</ele>
        <time>2018-12-29T13:22:15Z</time>
      </trkpt>
      <trkpt lat="36.725730" lon="-119.013150">
        <ele>1603.343</ele>
        <time>2018-12-29T13:22:35Z</time>
      </trkpt>
      <trkpt lat="36.725640" lon="-119.013090">
        <ele>1603.942</ele>
        <time>2018-12-29T13:22:55Z</time>
      </trkpt>
      <trkpt lat="36.725510" lon="-119.012990">
        <ele>1604.288</ele>
        <time>2018-12-29T13:23:15Z</time>
      </trkpt>
      <trkpt lat="36.725430" lon="-119.012920">
        <ele>1604.524</ele>
        <time>2018-12-29T13:23:35Z</time>
      </trkpt>
      <trkpt lat="36.725350" lon="-119.012840">
        <ele>1604.926</ele>
        <time>2018-12-29T13:23:55Z</time>
      </trkpt>
      <trkpt lat="36.725270" lon="-119.012740">
        <ele>1605.208</ele>
        <time>2018-12-29T13:24:15Z</time>
      </trkpt>
      <trkpt lat="36.725200" lon="-119.012650">
        <ele>1605.061</ele>
        <time>2018-12-29T13:24:35Z</time>
      </trkpt>
      <trkpt lat="36.725130" lon="-119.012540">
        <ele>1603.979</ele>
        <time>2018-12-29T13:24:55Z</time>
      </trkpt>
      <trkpt lat="36.725040" lon="-119.012400">
        <ele>1603.384</ele>
        <time>2018-12-29T13:25:15Z</time>
      </trkpt>
      <trkpt lat="36.724980" lon="-119.012290">
        <ele>1603.744</ele>
        <time>2018-12-29T13:25:35Z</time>
      </trkpt>
      <trkpt lat="36.724930" lon="-119.012160">
        <ele>1604.188</ele>
        <time>2018-12-29T13:25:55Z</time>
      </trkpt>
      <trkpt lat="36.724880" lon="-119.012020">
        <ele>1604.258</ele>
        <time>2018-12-29T13:26:15Z</time>
      </trkpt>
      <trkpt lat="36.724840" lon="-119.011920">
        <ele>1604.194</ele>
        <time>2018-12-29T13:26:35Z</time>
      </trkpt>
      <trkpt lat="36.724810" lon="-119.011830">
        <ele>1604.753</ele>
        <time>2018-12-29T13:26:55Z</time>
      </trkpt>
      <trkpt lat="36.724740" lon="-119.011650">
        <ele>1608.229</ele>
        <time>2018-12-29T13:27:15Z</time>
      </trkpt>
      <trkpt lat="36.724640" lon="-119.011380">
        <ele>1614.400</ele>
        <time>2018-12-29T13:27:35Z</time>
      </trkpt>
      <trkpt lat="36.724600" lon="-119.011300">
        <ele>1615.320</ele>
        <time>2018-12-29T13:27:55Z</time>
      </trkpt>
      <trkpt lat="36.724520" lon="-119.011140">
        <ele>1615.708</ele>
        <time>2018-12-29T13:28:15Z</time>
      </trkpt>
      <trkpt lat="36.724460" lon="-119.011010">
        <ele>1616.815</ele>
        <time>2018-12-29T13:28:35Z</time>
      </trkpt>
      <trkpt lat="36.724320" lon="-119.010780">
        <ele>1617.373</ele>
        <time>2018-12-29T13:28:55Z</time>
      </trkpt>
      <trkpt lat="36.724220" lon="-119.010610">
        <ele>1618.758</ele>
        <time>2018-12-29T13:29:15Z</time>
      </trkpt>
      <trkpt lat="36.724120" lon="-119.010460">
        <ele>1619.538</ele>
        <time>2018-12-29T13:29:35Z</time>
      </trkpt>
      <trkpt lat="36.723810" lon="-119.010000">
        <ele>1620.332</ele>
        <time>2018-12-29T13:29:55Z</time>
      </trkpt>
      <trkpt lat="36.723610" lon="-119.009700">
        <ele>1617.932</ele>
        <time>2018-12-29T13:30:15Z</time>
      </trkpt>
      <trkpt lat="36.723520" lon="-119.009580">
        <ele>1617.348</ele>
        <time>2018-12-29T13:30:35Z</time>
      </trkpt>
      <trkpt lat="36.723430" lon="-119.009420">
        <ele>1618.877</ele>
        <time>2018-12-29T13:30:55Z</time>
      </trkpt>
      <trkpt lat="36.723360" lon="-119.009260">
        <ele>1620.936</ele>
        <time>2018-12-29T13:31:15Z</time>
      </trkpt>
      <trkpt lat="36.723320" lon="-119.009160">
        <ele>1621.917</ele>
        <time>2018-12-29T13:31:35Z</time>
      </trkpt>
      <trkpt lat="36.723270" lon="-119.009000">
        <ele>1623.318</ele>
        <time>2018-12-29T13:31:55Z</time>
      </trkpt>
      <trkpt lat="36.723220" lon="-119.008750">
        <ele>1622.008</ele>
        <time>2018-12-29T13:32:15Z</time>
      </trkpt>
      <trkpt lat="36.723160" lon="-119.008520">
        <ele>1620.496</ele>
        <time>2018-12-29T13:32:35Z</time>
      </trkpt>
      <trkpt lat="36.723120" lon="-119.008320">
        <ele>1619.534</ele>
        <time>2018-12-29T13:32:55Z</time>
      </trkpt>
      <trkpt lat="36.723090" lon="-119.008190">
        <ele>1618.649</ele>
        <time>2018-12-29T13:33:15Z</time>
      </trkpt>
      <trkpt lat="36.722880" lon="-119.007170">
        <ele>1619.689</ele>
        <time>2018-12-29T13:33:35Z</time>
      </trkpt>
      <trkpt lat="36.722810" lon="-119.006890">
        <ele>1625.613</ele>
        <time>2018-12-29T13:33:55Z</time>
      </trkpt>
      <trkpt lat="36.722750" lon="-119.006620">
        <ele>1628.863</ele>
        <time>2018-12-29T13:34:15Z</time>
      </trkpt>
      <trkpt lat="36.722730" lon="-119.006510">
        <ele>1629.179</ele>
        <time>2018-12-29T13:34:35Z</time>
      </trkpt>
      <trkpt lat="36.722690" lon="-119.006380">
        <ele>1628.548</ele>
        <time>2018-12-29T13:34:55Z</time>
      </trkpt>
      <trkpt lat="36.722660" lon="-119.006310">
        <ele>1628.116</ele>
        <time>2018-12-29T13:35:15Z</time>
      </trkpt>
      <trkpt lat="36.722630" lon="-119.006200">
        <ele>1628.376</ele>
        <time>2018-12-29T13:35:35Z</time>
      </trkpt>
      <trkpt lat="36.722580" lon="-119.006100">
        <ele>1628.113</ele>
        <time>2018-12-29T13:35:55Z</time>
      </trkpt>
      <trkpt lat="36.722550" lon="-119.006030">
        <ele>1628.408</ele>
        <time>2018-12-29T13:36:15Z</time>
      </trkpt>
      <trkpt lat="36.722520" lon="-119.005950">
        <ele>1628.934</ele>
        <time>2018-12-29T13:36:35Z</time>
      </trkpt>
      <trkpt lat="36.722460" lon="-119.005810">
        <ele>1629.032</ele>
        <time>2018-12-29T13:36:55Z</time>
      </trkpt>
      <trkpt lat="36.722370" lon="-119.005630">
        <ele>1628.027</ele>
        <time>2018-12-29T13:37:15Z</time>
      </trkpt>
      <trkpt lat="36.722310" lon="-119.005530">
        <ele>1627.887</ele>
        <time>2018-12-29T13:37:35Z</time>
      </trkpt>
      <trkpt lat="36.722230" lon="-119.005380">
        <ele>1629.961</ele>
        <time>2018-12-29T13:37:55Z</time>
      </trkpt>
      <trkpt lat="36.722020" lon="-119.005020">
        <ele>1637.691</ele>
        <time>2018-12-29T13:38:15Z</time>
      </trkpt>
      <trkpt lat="36.721820" lon="-119.004650">
        <ele>1641.247</ele>
        <time>2018-12-29T13:38:35Z</time>
      </trkpt>
      <trkpt lat="36.721600" lon="-119.004240">
        <ele>1643.366</ele>
        <time>2018-12-29T13:38:55Z</time>
      </trkpt>
      <trkpt lat="36.721370" lon="-119.003830">
        <ele>1645.323</ele>
        <time>2018-12-29T13:39:15Z</time>
      </trkpt>
      <trkpt lat="36.721140" lon="-119.003470">
        <ele>1643.383</ele>
        <time>2018-12-29T13:39:35Z</time>
      </trkpt>
      <trkpt lat="36.720990" lon="-119.003240">
        <ele>1643.711</ele>
        <time>2018-12-29T13:39:55Z</time>
      </trkpt>
      <trkpt lat="36.720920" lon="-119.003130">
        <ele>1644.308</ele>
        <time>2018-12-29T13:40:15Z</time>
      </trkpt>
      <trkpt lat="36.720830" lon="-119.002980">
        <ele>1645.095</ele>
        <time>2018-12-29T13:40:35Z</time>
      </trkpt>
      <trkpt lat="36.720720" lon="-119.002810">
        <ele>1644.553</ele>
        <time>2018-12-29T13:40:55Z</time>
      </trkpt>
      <trkpt lat="36.720540" lon="-119.002540">
        <ele>1645.378</ele>
        <time>2018-12-29T13:41:15Z</time>
      </trkpt>
      <trkpt lat="36.720360" lon="-119.002270">
        <ele>1645.988</ele>
        <time>2018-12-29T13:41:35Z</time>
      </trkpt>
      <trkpt lat="36.720300" lon="-119.002170">
        <ele>1647.542</ele>
        <time>2018-12-29T13:41:55Z</time>
      </trkpt>
      <trkpt lat="36.720240" lon="-119.002070">
        <ele>1648.822</ele>
        <time>2018-12-29T13:42:15Z</time>
      </trkpt>
      <trkpt lat="36.720160" lon="-119.001920">
        <ele>1647.618</ele>
        <time>2018-12-29T13:42:35Z</time>
      </trkpt>
      <trkpt lat="36.720080" lon="-119.001750">
        <ele>1646.347</ele>
        <time>2018-12-29T13:42:55Z</time>
      </trkpt>
      <trkpt lat="36.720010" lon="-119.001560">
        <ele>1646.846</ele>
        <time>2018-12-29T13:43:15Z</time>
      </trkpt>
      <trkpt lat="36.719960" lon="-119.001440">
        <ele>1647.388</ele>
        <time>2018-12-29T13:43:35Z</time>
      </trkpt>
      <trkpt lat="36.719900" lon="-119.001240">
        <ele>1648.416</ele>
        <time>2018-12-29T13:43:55Z</time>
      </trkpt>
      <trkpt lat="36.719860" lon="-119.001090">
        <ele>1649.508</ele>
        <time>2018-12-29T13:44:15Z</time>
      </trkpt>
      <trkpt lat="36.719810" lon="-119.000900">
        <ele>1650.117</ele>
        <time>2018-12-29T13:44:35Z</time>
      </trkpt>
      <trkpt lat="36.719780" lon="-119.000760">
        <ele>1650.735</ele>
        <time>2018-12-29T13:44:55Z</time>
      </trkpt>
      <trkpt lat="36.719760" lon="-119.000600">
        <ele>1651.340</ele>
        <time>2018-12-29T13:45:15Z</time>
      </trkpt>
      <trkpt lat="36.719730" lon="-119.000370">
        <ele>1651.490</ele>
        <time>2018-12-29T13:45:35Z</time>
      </trkpt>
      <trkpt lat="36.719710" lon="-119.000240">
        <ele>1651.124</ele>
        <time>2018-12-29T13:45:55Z</time>
      </trkpt>
      <trkpt lat="36.719710" lon="-119.000140">
        <ele>1651.194</ele>
        <time>2018-12-29T13:46:15Z</time>
      </trkpt>
      <trkpt lat="36.719700" lon="-118.999980">
        <ele>1650.710</ele>
        <time>2018-12-29T13:46:35Z</time>
      </trkpt>
      <trkpt lat="36.719700" lon="-118.999840">
        <ele>1650.539</ele>
        <time>2018-12-29T13:46:55Z</time>
      </trkpt>
      <trkpt lat="36.719690" lon="-118.999650">
        <ele>1650.393</ele>
        <time>2018-12-29T13:47:15Z</time>
      </trkpt>
      <trkpt lat="36.719700" lon="-118.999540">
        <ele>1650.365</ele>
        <time>2018-12-29T13:47:35Z</time>
      </trkpt>
      <trkpt lat="36.719700" lon="-118.999410">
        <ele>1650.121</ele>
        <time>2018-12-29T13:47:55Z</time>
      </trkpt>
      <trkpt lat="36.719720" lon="-118.999230">
        <ele>1650.208</ele>
        <time>2018-12-29T13:48:15Z</time>
      </trkpt>
      <trkpt lat="36.719740" lon="-118.999090">
        <ele>1650.342</ele>
        <time>2018-12-29T13:48:35Z</time>
      </trkpt>
      <trkpt lat="36.719750" lon="-118.999010">
        <ele>1650.630</ele>
        <time>2018-12-29T13:48:55Z</time>
      </trkpt>
      <trkpt lat="36.719760" lon="-118.998910">
        <ele>1651.625</ele>
        <time>2018-12-29T13:49:15Z</time>
      </trkpt>
      <trkpt lat="36.719790" lon="-118.998800">
        <ele>1653.175</ele>
        <time>2018-12-29T13:49:35Z</time>
      </trkpt>
      <trkpt lat="36.719810" lon="-118.998690">
        <ele>1655.139</ele>
        <time>2018-12-29T13:49:55Z</time>
      </trkpt>
      <trkpt lat="36.719830" lon="-118.998630">
        <ele>1656.899</ele>
        <time>2018-12-29T13:50:15Z</time>
      </trkpt>
      <trkpt lat="36.719860" lon="-118.998520">
        <ele>1659.945</ele>
        <time>2018-12-29T13:50:35Z</time>
      </trkpt>
      <trkpt lat="36.719900" lon="-118.998380">
        <ele>1662.554</ele>
        <time>2018-12-29T13:50:55Z</time>
      </trkpt>
      <trkpt lat="36.719980" lon="-118.998130">
        <ele>1664.411</ele>
        <time>2018-12-29T13:51:15Z</time>
      </trkpt>
      <trkpt lat="36.720030" lon="-118.997960">
        <ele>1665.021</ele>
        <time>2018-12-29T13:51:35Z</time>
      </trkpt>
      <trkpt lat="36.720080" lon="-118.997810">
        <ele>1665.303</ele>
        <time>2018-12-29T13:51:55Z</time>
      </trkpt>
      <trkpt lat="36.720140" lon="-118.997600">
        <ele>1665.908</ele>
        <time>2018-12-29T13:52:15Z</time>
      </trkpt>
      <trkpt lat="36.720220" lon="-118.997330">
        <ele>1666.854</ele>
        <time>2018-12-29T13:52:35Z</time>
      </trkpt>
      <trkpt lat="36.720250" lon="-118.997200">
        <ele>1667.452</ele>
        <time>2018-12-29T13:52:55Z</time>
      </trkpt>
      <trkpt lat="36.720270" lon="-118.997090">
        <ele>1668.027</ele>
        <time>2018-12-29T13:53:15Z</time>
      </trkpt>
      <trkpt lat="36.720300" lon="-118.996870">
        <ele>1671.497</ele>
        <time>2018-12-29T13:53:35Z</time>
      </trkpt>
      <trkpt lat="36.720330" lon="-118.996730">
        <ele>1674.551</ele>
        <time>2018-12-29T13:53:55Z</time>
      </trkpt>
      <trkpt lat="36.720350" lon="-118.996510">
        <ele>1678.441</ele>
        <time>2018-12-29T13:54:15Z</time>
      </trkpt>
      <trkpt lat="36.720370" lon="-118.996300">
        <ele>1679.437</ele>
        <time>2018-12-29T13:54:35Z</time>
      </trkpt>
      <trkpt lat="36.720380" lon="-118.996110">
        <ele>1678.386</ele>
        <time>2018-12-29T13:54:55Z</time>
      </trkpt>
      <trkpt lat="36.720380" lon="-118.995950">
        <ele>1676.975</ele>
        <time>2018-12-29T13:55:15Z</time>
      </trkpt>
      <trkpt lat="36.720380" lon="-118.995820">
        <ele>1677.328</ele>
        <time>2018-12-29T13:55:35Z</time>
      </trkpt>
      <trkpt lat="36.720380" lon="-118.995690">
        <ele>1677.820</ele>
        <time>2018-12-29T13:55:55Z</time>
      </trkpt>
      <trkpt lat="36.720380" lon="-118.995550">
        <ele>1679.208</ele>
        <time>2018-12-29T13:56:15Z</time>
      </trkpt>
      <trkpt lat="36.720360" lon="-118.995320">
        <ele>1681.050</ele>
        <time>2018-12-29T13:56:35Z</time>
      </trkpt>
      <trkpt lat="36.720340" lon="-118.995160">
        <ele>1682.148</ele>
        <time>2018-12-29T13:56:55Z</time>
      </trkpt>
      <trkpt lat="36.720310" lon="-118.995000">
        <ele>1681.743</ele>
        <time>2018-12-29T13:57:15Z</time>
      </trkpt>
      <trkpt lat="36.720280" lon="-118.994820">
        <ele>1680.943</ele>
        <time>2018-12-29T13:57:35Z</time>
      </trkpt>
      <trkpt lat="36.720220" lon="-118.994560">
        <ele>1678.167</ele>
        <time>2018-12-29T13:57:55Z</time>
      </trkpt>
      <trkpt lat="36.720180" lon="-118.994350">
        <ele>1677.067</ele>
        <time>2018-12-29T13:58:15Z</time>
      </trkpt>
      <trkpt lat="36.720170" lon="-118.994270">
        <ele>1677.093</ele>
        <time>2018-12-29T13:58:35Z</time>
      </trkpt>
      <trkpt lat="36.720160" lon="-118.994180">
        <ele>1677.472</ele>
        <time>2018-12-29T13:58:55Z</time>
      </trkpt>
      <trkpt lat="36.720160" lon="-118.994100">
        <ele>1677.887</ele>
        <time>2018-12-29T13:59:15Z</time>
      </trkpt>
      <trkpt lat="36.720160" lon="-118.994010">
        <ele>1678.442</ele>
        <time>2018-12-29T13:59:35Z</time>
      </trkpt>
      <trkpt lat="36.720170" lon="-118.993880">
        <ele>1680.026</ele>
        <time>2018-12-29T13:59:55Z</time>
      </trkpt>
      <trkpt lat="36.720190" lon="-118.993760">
        <ele>1682.208</ele>
        <time>2018-12-29T14:00:15Z</time>
      </trkpt>
      <trkpt lat="36.720210" lon="-118.993680">
        <ele>1683.991</ele>
        <time>2018-12-29T14:00:35Z</time>
      </trkpt>
      <trkpt lat="36.720240" lon="-118.993600">
        <ele>1685.939</ele>
        <time>2018-12-29T14:00:55Z</time>
      </trkpt>
      <trkpt lat="36.720260" lon="-118.993550">
        <ele>1687.134</ele>
        <time>2018-12-29T14:01:15Z</time>
      </trkpt>
      <trkpt lat="36.720280" lon="-118.993500">
        <ele>1688.354</ele>
        <time>2018-12-29T14:01:35Z</time>
      </trkpt>
      <trkpt lat="36.720320" lon="-118.993430">
        <ele>1688.868</ele>
        <time>2018-12-29T14:01:55Z</time>
      </trkpt>
      <trkpt lat="36.720340" lon="-118.993400">
        <ele>1688.568</ele>
        <time>2018-12-29T14:02:15Z</time>
      </trkpt>
      <trkpt lat="36.720370" lon="-118.993360">
        <ele>1687.634</ele>
        <time>2018-12-29T14:02:35Z</time>
      </trkpt>
      <trkpt lat="36.720410" lon="-118.993310">
        <ele>1686.033</ele>
        <time>2018-12-29T14:02:55Z</time>
      </trkpt>
      <trkpt lat="36.720460" lon="-118.993260">
        <ele>1685.733</ele>
        <time>2018-12-29T14:03:15Z</time>
      </trkpt>
      <trkpt lat="36.720510" lon="-118.993200">
        <ele>1686.023</ele>
        <time>2018-12-29T14:03:35Z</time>
      </trkpt>
      <trkpt lat="36.720560" lon="-118.993160">
        <ele>1687.515</ele>
        <time>2018-12-29T14:03:55Z</time>
      </trkpt>
      <trkpt lat="36.720620" lon="-118.993110">
        <ele>1688.708</ele>
        <time>2018-12-29T14:04:15Z</time>
      </trkpt>
      <trkpt lat="36.720650" lon="-118.993090">
        <ele>1689.336</ele>
        <time>2018-12-29T14:04:35Z</time>
      </trkpt>
      <trkpt lat="36.720690" lon="-118.993070">
        <ele>1690.284</ele>
        <time>2018-12-29T14:04:55Z</time>
      </trkpt>
      <trkpt lat="36.720740" lon="-118.993060">
        <ele>1690.269</ele>
        <time>2018-12-29T14:05:15Z</time>
      </trkpt>
      <trkpt lat="36.720810" lon="-118.993040">
        <ele>1689.559</ele>
        <time>2018-12-29T14:05:35Z</time>
      </trkpt>
      <trkpt lat="36.720850" lon="-118.993030">
        <ele>1689.373</ele>
        <time>2018-12-29T14:05:55Z</time>
      </trkpt>
      <trkpt lat="36.720900" lon="-118.993020">
        <ele>1689.193</ele>
        <time>2018-12-29T14:06:15Z</time>
      </trkpt>
      <trkpt lat="36.720990" lon="-118.993020">
        <ele>1689.459</ele>
        <time>2018-12-29T14:06:35Z</time>
      </trkpt>
      <trkpt lat="36.721050" lon="-118.993020">
        <ele>1689.328</ele>
        <time>2018-12-29T14:06:55Z</time>
      </trkpt>
      <trkpt lat="36.721160" lon="-118.993030">
        <ele>1689.667</ele>
        <time>2018-12-29T14:07:15Z</time>
      </trkpt>
      <trkpt lat="36.721290" lon="-118.993050">
        <ele>1690.481</ele>
        <time>2018-12-29T14:07:35Z</time>
      </trkpt>
      <trkpt lat="36.721540" lon="-118.993100">
        <ele>1692.319</ele>
        <time>2018-12-29T14:07:55Z</time>
      </trkpt>
      <trkpt lat="36.721760" lon="-118.993130">
        <ele>1693.108</ele>
        <time>2018-12-29T14:08:15Z</time>
      </trkpt>
      <trkpt lat="36.721920" lon="-118.993160">
        <ele>1694.839</ele>
        <time>2018-12-29T14:08:35Z</time>
      </trkpt>
      <trkpt lat="36.722000" lon="-118.993170">
        <ele>1695.717</ele>
        <time>2018-12-29T14:08:55Z</time>
      </trkpt>
      <trkpt lat="36.722070" lon="-118.993170">
        <ele>1696.032</ele>
        <time>2018-12-29T14:09:15Z</time>
      </trkpt>
      <trkpt lat="36.722170" lon="-118.993160">
        <ele>1697.482</ele>
        <time>2018-12-29T14:09:35Z</time>
      </trkpt>
      <trkpt lat="36.722210" lon="-118.993160">
        <ele>1698.266</ele>
        <time>2018-12-29T14:09:55Z</time>
      </trkpt>
      <trkpt lat="36.722350" lon="-118.993150">
        <ele>1700.666</ele>
        <time>2018-12-29T14:10:15Z</time>
      </trkpt>
      <trkpt lat="36.722420" lon="-118.993140">
        <ele>1701.182</ele>
        <time>2018-12-29T14:10:35Z</time>
      </trkpt>
      <trkpt lat="36.722500" lon="-118.993120">
        <ele>1701.491</ele>
        <time>2018-12-29T14:10:55Z</time>
      </trkpt>
      <trkpt lat="36.722560" lon="-118.993100">
        <ele>1701.781</ele>
        <time>2018-12-29T14:11:15Z</time>
      </trkpt>
      <trkpt lat="36.722660" lon="-118.993070">
        <ele>1702.861</ele>
        <time>2018-12-29T14:11:35Z</time>
      </trkpt>
      <trkpt lat="36.722730" lon="-118.993030">
        <ele>1703.417</ele>
        <time>2018-12-29T14:11:55Z</time>
      </trkpt>
      <trkpt lat="36.722830" lon="-118.992960">
        <ele>1704.508</ele>
        <time>2018-12-29T14:12:15Z</time>
      </trkpt>
      <trkpt lat="36.722900" lon="-118.992910">
        <ele>1705.541</ele>
        <time>2018-12-29T14:12:35Z</time>
      </trkpt>
      <trkpt lat="36.722990" lon="-118.992840">
        <ele>1705.769</ele>
        <time>2018-12-29T14:12:55Z</time>
      </trkpt>
      <trkpt lat="36.723070" lon="-118.992760">
        <ele>1705.874</ele>
        <time>2018-12-29T14:13:15Z</time>
      </trkpt>
      <trkpt lat="36.723120" lon="-118.992720">
        <ele>1706.374</ele>
        <time>2018-12-29T14:13:35Z</time>
      </trkpt>
      <trkpt lat="36.723160" lon="-118.992670">
        <ele>1706.678</ele>
        <time>2018-12-29T14:13:55Z</time>
      </trkpt>
      <trkpt lat="36.723210" lon="-118.992600">
        <ele>1707.018</ele>
        <time>2018-12-29T14:14:15Z</time>
      </trkpt>
      <trkpt lat="36.723250" lon="-118.992540">
        <ele>1707.154</ele>
        <time>2018-12-29T14:14:35Z</time>
      </trkpt>
      <trkpt lat="36.723320" lon="-118.992420">
        <ele>1707.153</ele>
        <time>2018-12-29T14:14:55Z</time>
      </trkpt>
      <trkpt lat="36.723370" lon="-118.992320">
        <ele>1706.996</ele>
        <time>2018-12-29T14:15:15Z</time>
      </trkpt>
      <trkpt lat="36.723430" lon="-118.992190">
        <ele>1707.031</ele>
        <time>2018-12-29T14:15:35Z</time>
      </trkpt>
      <trkpt lat="36.723450" lon="-118.992140">
        <ele>1707.124</ele>
        <time>2018-12-29T14:15:55Z</time>
      </trkpt>
      <trkpt lat="36.723470" lon="-118.992070">
        <ele>1707.408</ele>
        <time>2018-12-29T14:16:15Z</time>
      </trkpt>
      <trkpt lat="36.723500" lon="-118.991970">
        <ele>1708.312</ele>
        <time>2018-12-29T14:16:35Z</time>
      </trkpt>
      <trkpt lat="36.723510" lon="-118.991930">
        <ele>1708.640</ele>
        <time>2018-12-29T14:16:55Z</time>
      </trkpt>
      <trkpt lat="36.723520" lon="-118.991870">
        <ele>1709.025</ele>
        <time>2018-12-29T14:17:15Z</time>
      </trkpt>
      <trkpt lat="36.723540" lon="-118.991760">
        <ele>1709.855</ele>
        <time>2018-12-29T14:17:35Z</time>
      </trkpt>
      <trkpt lat="36.723560" lon="-118.991610">
        <ele>1711.089</ele>
        <time>2018-12-29T14:17:55Z</time>
      </trkpt>
      <trkpt lat="36.723560" lon="-118.991490">
        <ele>1711.689</ele>
        <time>2018-12-29T14:18:15Z</time>
      </trkpt>
      <trkpt lat="36.723560" lon="-118.991450">
        <ele>1711.715</ele>
        <time>2018-12-29T14:18:35Z</time>
      </trkpt>
      <trkpt lat="36.723560" lon="-118.991370">
        <ele>1711.974</ele>
        <time>2018-12-29T14:18:55Z</time>
      </trkpt>
      <trkpt lat="36.723550" lon="-118.991270">
        <ele>1712.156</ele>
        <time>2018-12-29T14:19:15Z</time>
      </trkpt>
      <trkpt lat="36.723550" lon="-118.991200">
        <ele>1712.259</ele>
        <time>2018-12-29T14:19:35Z</time>
      </trkpt>
      <trkpt lat="36.723530" lon="-118.991110">
        <ele>1712.214</ele>
        <time>2018-12-29T14:19:55Z</time>
      </trkpt>
      <trkpt lat="36.723510" lon="-118.991030">
        <ele>1712.408</ele>
        <time>2018-12-29T14:20:15Z</time>
      </trkpt>
      <trkpt lat="36.723480" lon="-118.990910">
        <ele>1712.938</ele>
        <time>2018-12-29T14:20:35Z</time>
      </trkpt>
      <trkpt lat="36.723460" lon="-118.990840">
        <ele>1712.816</ele>
        <time>2018-12-29T14:20:55Z</time>
      </trkpt>
      <trkpt lat="36.723420" lon="-118.990720">
        <ele>1712.651</ele>
        <time>2018-12-29T14:21:15Z</time>
      </trkpt>
      <trkpt lat="36.723370" lon="-118.990610">
        <ele>1712.851</ele>
        <time>2018-12-29T14:21:35Z</time>
      </trkpt>
      <trkpt lat="36.723310" lon="-118.990500">
        <ele>1712.845</ele>
        <time>2018-12-29T14:21:55Z</time>
      </trkpt>
      <trkpt lat="36.723270" lon="-118.990420">
        <ele>1712.935</ele>
        <time>2018-12-29T14:22:15Z</time>
      </trkpt>
      <trkpt lat="36.723220" lon="-118.990350">
        <ele>1713.611</ele>
        <time>2018-12-29T14:22:35Z</time>
      </trkpt>
      <trkpt lat="36.723150" lon="-118.990260">
        <ele>1714.270</ele>
        <time>2018-12-29T14:22:55Z</time>
      </trkpt>
      <trkpt lat="36.723100" lon="-118.990200">
        <ele>1714.631</ele>
        <time>2018-12-29T14:23:15Z</time>
      </trkpt>
      <trkpt lat="36.723040" lon="-118.990140">
        <ele>1715.161</ele>
        <time>2018-12-29T14:23:35Z</time>
      </trkpt>
      <trkpt lat="36.722980" lon="-118.990090">
        <ele>1715.707</ele>
        <time>2018-12-29T14:23:55Z</time>
      </trkpt>
      <trkpt lat="36.722920" lon="-118.990040">
        <ele>1716.508</ele>
        <time>2018-12-29T14:24:15Z</time>
      </trkpt>
      <trkpt lat="36.722680" lon="-118.989850">
        <ele>1718.766</ele>
        <time>2018-12-29T14:24:35Z</time>
      </trkpt>
      <trkpt lat="36.722520" lon="-118.989730">
        <ele>1720.244</ele>
        <time>2018-12-29T14:24:55Z</time>
      </trkpt>
      <trkpt lat="36.722340" lon="-118.989600">
        <ele>1721.349</ele>
        <time>2018-12-29T14:25:15Z</time>
      </trkpt>
      <trkpt lat="36.722080" lon="-118.989400">
        <ele>1727.099</ele>
        <time>2018-12-29T14:25:35Z</time>
      </trkpt>
      <trkpt lat="36.721930" lon="-118.989290">
        <ele>1727.433</ele>
        <time>2018-12-29T14:25:55Z</time>
      </trkpt>
      <trkpt lat="36.721710" lon="-118.989140">
        <ele>1727.643</ele>
        <time>2018-12-29T14:26:15Z</time>
      </trkpt>
      <trkpt lat="36.721600" lon="-118.989070">
        <ele>1727.229</ele>
        <time>2018-12-29T14:26:35Z</time>
      </trkpt>
      <trkpt lat="36.721480" lon="-118.988970">
        <ele>1728.018</ele>
        <time>2018-12-29T14:26:55Z</time>
      </trkpt>
      <trkpt lat="36.721300" lon="-118.988830">
        <ele>1727.842</ele>
        <time>2018-12-29T14:27:15Z</time>
      </trkpt>
      <trkpt lat="36.721200" lon="-118.988730">
        <ele>1728.222</ele>
        <time>2018-12-29T14:27:35Z</time>
      </trkpt>
      <trkpt lat="36.721040" lon="-118.988560">
        <ele>1730.214</ele>
        <time>2018-12-29T14:27:55Z</time>
      </trkpt>
      <trkpt lat="36.720990" lon="-118.988490">
        <ele>1730.608</ele>
        <time>2018-12-29T14:28:15Z</time>
      </trkpt>
      <trkpt lat="36.720900" lon="-118.988350">
        <ele>1734.877</ele>
        <time>2018-12-29T14:28:35Z</time>
      </trkpt>
      <trkpt lat="36.720770" lon="-118.988130">
        <ele>1739.845</ele>
        <time>2018-12-29T14:28:55Z</time>
      </trkpt>
      <trkpt lat="36.720670" lon="-118.987950">
        <ele>1739.650</ele>
        <time>2018-12-29T14:29:15Z</time>
      </trkpt>
      <trkpt lat="36.720630" lon="-118.987860">
        <ele>1740.150</ele>
        <time>2018-12-29T14:29:35Z</time>
      </trkpt>
      <trkpt lat="36.720590" lon="-118.987790">
        <ele>1740.034</ele>
        <time>2018-12-29T14:29:55Z</time>
      </trkpt>
      <trkpt lat="36.720530" lon="-118.987630">
        <ele>1740.414</ele>
        <time>2018-12-29T14:30:15Z</time>
      </trkpt>
      <trkpt lat="36.720480" lon="-118.987490">
        <ele>1740.320</ele>
        <time>2018-12-29T14:30:35Z</time>
      </trkpt>
      <trkpt lat="36.720440" lon="-118.987340">
        <ele>1740.299</ele>
        <time>2018-12-29T14:30:55Z</time>
      </trkpt>
      <trkpt lat="36.720390" lon="-118.987170">
        <ele>1739.672</ele>
        <time>2018-12-29T14:31:15Z</time>
      </trkpt>
      <trkpt lat="36.720360" lon="-118.987030">
        <ele>1739.613</ele>
        <time>2018-12-29T14:31:35Z</time>
      </trkpt>
      <trkpt lat="36.720330" lon="-118.986850">
        <ele>1739.514</ele>
        <time>2018-12-29T14:31:55Z</time>
      </trkpt>
      <trkpt lat="36.720290" lon="-118.986620">
        <ele>1742.408</ele>
        <time>2018-12-29T14:32:15Z</time>
      </trkpt>
      <trkpt lat="36.720180" lon="-118.985950">
        <ele>1749.820</ele>
        <time>2018-12-29T14:32:35Z</time>
      </trkpt>
      <trkpt lat="36.720130" lon="-118.985680">
        <ele>1749.618</ele>
        <time>2018-12-29T14:32:55Z</time>
      </trkpt>
      <trkpt lat="36.720100" lon="-118.985510">
        <ele>1750.663</ele>
        <time>2018-12-29T14:33:15Z</time>
      </trkpt>
      <trkpt lat="36.720060" lon="-118.985380">
        <ele>1751.213</ele>
        <time>2018-12-29T14:33:35Z</time>
      </trkpt>
      <trkpt lat="36.720050" lon="-118.985310">
        <ele>1752.347</ele>
        <time>2018-12-29T14:33:55Z</time>
      </trkpt>
      <trkpt lat="36.720020" lon="-118.985240">
        <ele>1752.677</ele>
        <time>2018-12-29T14:34:15Z</time>
      </trkpt>
      <trkpt lat="36.719970" lon="-118.985120">
        <ele>1753.053</ele>
        <time>2018-12-29T14:34:35Z</time>
      </trkpt>
      <trkpt lat="36.719930" lon="-118.985020">
        <ele>1753.932</ele>
        <time>2018-12-29T14:34:55Z</time>
      </trkpt>
      <trkpt lat="36.719870" lon="-118.984900">
        <ele>1753.045</ele>
        <time>2018-12-29T14:35:15Z</time>
      </trkpt>
      <trkpt lat="36.719820" lon="-118.984810">
        <ele>1753.447</ele>
        <time>2018-12-29T14:35:35Z</time>
      </trkpt>
      <trkpt lat="36.719770" lon="-118.984730">
        <ele>1754.211</ele>
        <time>2018-12-29T14:35:55Z</time>
      </trkpt>
      <trkpt lat="36.719720" lon="-118.984660">
        <ele>1754.208</ele>
        <time>2018-12-29T14:36:15Z</time>
      </trkpt>
      <trkpt lat="36.719630" lon="-118.984550">
        <ele>1753.497</ele>
        <time>2018-12-29T14:36:35Z</time>
      </trkpt>
      <trkpt lat="36.719550" lon="-118.984480">
        <ele>1752.755</ele>
        <time>2018-12-29T14:36:55Z</time>
      </trkpt>
      <trkpt lat="36.719470" lon="-118.984400">
        <ele>1753.330</ele>
        <time>2018-12-29T14:37:15Z</time>
      </trkpt>
      <trkpt lat="36.719380" lon="-118.984340">
        <ele>1752.740</ele>
        <time>2018-12-29T14:37:35Z</time>
      </trkpt>
      <trkpt lat="36.719360" lon="-118.984320">
        <ele>1752.724</ele>
        <time>2018-12-29T14:37:55Z</time>
      </trkpt>
      <trkpt lat="36.719270" lon="-118.984260">
        <ele>1753.274</ele>
        <time>2018-12-29T14:38:15Z</time>
      </trkpt>
      <trkpt lat="36.719190" lon="-118.984220">
        <ele>1753.270</ele>
        <time>2018-12-29T14:38:35Z</time>
      </trkpt>
      <trkpt lat="36.719100" lon="-118.984180">
        <ele>1752.339</ele>
        <time>2018-12-29T14:38:55Z</time>
      </trkpt>
      <trkpt lat="36.718970" lon="-118.984140">
        <ele>1751.566</ele>
        <time>2018-12-29T14:39:15Z</time>
      </trkpt>
      <trkpt lat="36.718900" lon="-118.984110">
        <ele>1752.429</ele>
        <time>2018-12-29T14:39:35Z</time>
      </trkpt>
      <trkpt lat="36.718820" lon="-118.984090">
        <ele>1752.921</ele>
        <time>2018-12-29T14:39:55Z</time>
      </trkpt>
      <trkpt lat="36.718490" lon="-118.983990">
        <ele>1761.208</ele>
        <time>2018-12-29T14:40:15Z</time>
      </trkpt>
      <trkpt lat="36.718370" lon="-118.983950">
        <ele>1762.089</ele>
        <time>2018-12-29T14:40:35Z</time>
      </trkpt>
      <trkpt lat="36.718250" lon="-118.983910">
        <ele>1762.367</ele>
        <time>2018-12-29T14:40:55Z</time>
      </trkpt>
      <trkpt lat="36.718190" lon="-118.983870">
        <ele>1762.992</ele>
        <time>2018-12-29T14:41:15Z</time>
      </trkpt>
      <trkpt lat="36.718130" lon="-118.983840">
        <ele>1762.882</ele>
        <time>2018-12-29T14:41:35Z</time>
      </trkpt>
      <trkpt lat="36.718030" lon="-118.983760">
        <ele>1763.486</ele>
        <time>2018-12-29T14:41:55Z</time>
      </trkpt>
      <trkpt lat="36.717880" lon="-118.983620">
        <ele>1764.136</ele>
        <time>2018-12-29T14:42:15Z</time>
      </trkpt>
      <trkpt lat="36.717820" lon="-118.983560">
        <ele>1764.192</ele>
        <time>2018-12-29T14:42:35Z</time>
      </trkpt>
      <trkpt lat="36.717780" lon="-118.983520">
        <ele>1763.961</ele>
        <time>2018-12-29T14:42:55Z</time>
      </trkpt>
      <trkpt lat="36.717760" lon="-118.983480">
        <ele>1764.242</ele>
        <time>2018-12-29T14:43:15Z</time>
      </trkpt>
      <trkpt lat="36.717730" lon="-118.983430">
        <ele>1764.922</ele>
        <time>2018-12-29T14:43:35Z</time>
      </trkpt>
      <trkpt lat="36.717700" lon="-118.983390">
        <ele>1765.014</ele>
        <time>2018-12-29T14:43:55Z</time>
      </trkpt>
      <trkpt lat="36.717630" lon="-118.983280">
        <ele>1764.308</ele>
        <time>2018-12-29T14:44:15Z</time>
      </trkpt>
      <trkpt lat="36.717590" lon="-118.983190">
        <ele>1765.117</ele>
        <time>2018-12-29T14:44:35Z</time>
      </trkpt>
      <trkpt lat="36.717560" lon="-118.983120">
        <ele>1766.855</ele>
        <time>2018-12-29T14:44:55Z</time>
      </trkpt>
      <trkpt lat="36.717500" lon="-118.982990">
        <ele>1769.050</ele>
        <time>2018-12-29T14:45:15Z</time>
      </trkpt>
      <trkpt lat="36.717420" lon="-118.982800">
        <ele>1772.880</ele>
        <time>2018-12-29T14:45:35Z</time>
      </trkpt>
      <trkpt lat="36.717370" lon="-118.982680">
        <ele>1774.524</ele>
        <time>2018-12-29T14:45:55Z</time>
      </trkpt>
      <trkpt lat="36.717270" lon="-118.982460">
        <ele>1782.634</ele>
        <time>2018-12-29T14:46:15Z</time>
      </trkpt>
      <trkpt lat="36.717230" lon="-118.982400">
        <ele>1783.470</ele>
        <time>2018-12-29T14:46:35Z</time>
      </trkpt>
      <trkpt lat="36.717140" lon="-118.982250">
        <ele>1781.989</ele>
        <time>2018-12-29T14:46:55Z</time>
      </trkpt>
      <trkpt lat="36.717070" lon="-118.982160">
        <ele>1780.445</ele>
        <time>2018-12-29T14:47:15Z</time>
      </trkpt>
      <trkpt lat="36.717010" lon="-118.982070">
        <ele>1780.847</ele>
        <time>2018-12-29T14:47:35Z</time>
      </trkpt>
      <trkpt lat="36.716950" lon="-118.981980">
        <ele>1781.411</ele>
        <time>2018-12-29T14:47:55Z</time>
      </trkpt>
      <trkpt lat="36.716900" lon="-118.981930">
        <ele>1781.308</ele>
        <time>2018-12-29T14:48:15Z</time>
      </trkpt>
      <trkpt lat="36.716850" lon="-118.981860">
        <ele>1782.087</ele>
        <time>2018-12-29T14:48:35Z</time>
      </trkpt>
      <trkpt lat="36.716780" lon="-118.981780">
        <ele>1782.415</ele>
        <time>2018-12-29T14:48:55Z</time>
      </trkpt>
      <trkpt lat="36.716680" lon="-118.981680">
        <ele>1782.390</ele>
        <time>2018-12-29T14:49:15Z</time>
      </trkpt>
      <trkpt lat="36.716580" lon="-118.981590">
        <ele>1782.190</ele>
        <time>2018-12-29T14:49:35Z</time>
      </trkpt>
      <trkpt lat="36.716510" lon="-118.981530">
        <ele>1782.064</ele>
        <time>2018-12-29T14:49:55Z</time>
      </trkpt>
      <trkpt lat="36.716370" lon="-118.981400">
        <ele>1783.414</ele>
        <time>2018-12-29T14:50:15Z</time>
      </trkpt>
      <trkpt lat="36.716260" lon="-118.981280">
        <ele>1784.820</ele>
        <time>2018-12-29T14:50:35Z</time>
      </trkpt>
      <trkpt lat="36.716210" lon="-118.981200">
        <ele>1786.899</ele>
        <time>2018-12-29T14:50:55Z</time>
      </trkpt>
      <trkpt lat="36.716170" lon="-118.981140">
        <ele>1788.078</ele>
        <time>2018-12-29T14:51:15Z</time>
      </trkpt>
      <trkpt lat="36.716150" lon="-118.981090">
        <ele>1789.033</ele>
        <time>2018-12-29T14:51:35Z</time>
      </trkpt>
      <trkpt lat="36.716110" lon="-118.981020">
        <ele>1789.826</ele>
        <time>2018-12-29T14:51:55Z</time>
      </trkpt>
      <trkpt lat="36.716080" lon="-118.980930">
        <ele>1791.108</ele>
        <time>2018-12-29T14:52:15Z</time>
      </trkpt>
      <trkpt lat="36.716040" lon="-118.980830">
        <ele>1791.920</ele>
        <time>2018-12-29T14:52:35Z</time>
      </trkpt>
      <trkpt lat="36.716010" lon="-118.980750">
        <ele>1792.118</ele>
        <time>2018-12-29T14:52:55Z</time>
      </trkpt>
      <trkpt lat="36.715980" lon="-118.980650">
        <ele>1792.573</ele>
        <time>2018-12-29T14:53:15Z</time>
      </trkpt>
      <trkpt lat="36.715940" lon="-118.980540">
        <ele>1793.383</ele>
        <time>2018-12-29T14:53:35Z</time>
      </trkpt>
      <trkpt lat="36.715910" lon="-118.980460">
        <ele>1793.817</ele>
        <time>2018-12-29T14:53:55Z</time>
      </trkpt>
      <trkpt lat="36.715870" lon="-118.980400">
        <ele>1793.347</ele>
        <time>2018-12-29T14:54:15Z</time>
      </trkpt>
      <trkpt lat="36.715840" lon="-118.980340">
        <ele>1793.493</ele>
        <time>2018-12-29T14:54:35Z</time>
      </trkpt>
      <trkpt lat="36.715800" lon="-118.980280">
        <ele>1792.942</ele>
        <time>2018-12-29T14:54:55Z</time>
      </trkpt>
      <trkpt lat="36.715750" lon="-118.980220">
        <ele>1791.816</ele>
        <time>2018-12-29T14:55:15Z</time>
      </trkpt>
      <trkpt lat="36.715660" lon="-118.980120">
        <ele>1790.476</ele>
        <time>2018-12-29T14:55:35Z</time>
      </trkpt>
      <trkpt lat="36.715580" lon="-118.980070">
        <ele>1790.313</ele>
        <time>2018-12-29T14:55:55Z</time>
      </trkpt>
      <trkpt lat="36.715520" lon="-118.980030">
        <ele>1790.308</ele>
        <time>2018-12-29T14:56:15Z</time>
      </trkpt>
      <trkpt lat="36.715420" lon="-118.979980">
        <ele>1790.124</ele>
        <time>2018-12-29T14:56:35Z</time>
      </trkpt>
      <trkpt lat="36.715310" lon="-118.979920">
        <ele>1790.732</ele>
        <time>2018-12-29T14:56:55Z</time>
      </trkpt>
      <trkpt lat="36.715240" lon="-118.979880">
        <ele>1791.327</ele>
        <time>2018-12-29T14:57:15Z</time>
      </trkpt>
      <trkpt lat="36.715140" lon="-118.979830">
        <ele>1792.837</ele>
        <time>2018-12-29T14:57:35Z</time>
      </trkpt>
      <trkpt lat="36.715070" lon="-118.979780">
        <ele>1796.111</ele>
        <time>2018-12-29T14:57:55Z</time>
      </trkpt>
      <trkpt lat="36.715000" lon="-118.979710">
        <ele>1799.321</ele>
        <time>2018-12-29T14:58:15Z</time>
      </trkpt>
      <trkpt lat="36.714970" lon="-118.979680">
        <ele>1800.357</ele>
        <time>2018-12-29T14:58:35Z</time>
      </trkpt>
      <trkpt lat="36.714930" lon="-118.979620">
        <ele>1801.816</ele>
        <time>2018-12-29T14:58:55Z</time>
      </trkpt>
      <trkpt lat="36.714880" lon="-118.979550">
        <ele>1802.576</ele>
        <time>2018-12-29T14:59:15Z</time>
      </trkpt>
      <trkpt lat="36.714840" lon="-118.979480">
        <ele>1803.290</ele>
        <time>2018-12-29T14:59:35Z</time>
      </trkpt>
      <trkpt lat="36.714810" lon="-118.979420">
        <ele>1803.919</ele>
        <time>2018-12-29T14:59:55Z</time>
      </trkpt>
      <trkpt lat="36.714800" lon="-118.979400">
        <ele>1804.008</ele>
        <time>2018-12-29T15:00:15Z</time>
      </trkpt>
      <trkpt lat="36.714790" lon="-118.979370">
        <ele>1804.220</ele>
        <time>2018-12-29T15:00:35Z</time>
      </trkpt>
      <trkpt lat="36.714770" lon="-118.979310">
        <ele>1804.338</ele>
        <time>2018-12-29T15:00:55Z</time>
      </trkpt>
      <trkpt lat="36.714750" lon="-118.979260">
        <ele>1804.513</ele>
        <time>2018-12-29T15:01:15Z</time>
      </trkpt>
      <trkpt lat="36.714730" lon="-118.979190">
        <ele>1804.813</ele>
        <time>2018-12-29T15:01:35Z</time>
      </trkpt>
      <trkpt lat="36.714710" lon="-118.979080">
        <ele>1805.027</ele>
        <time>2018-12-29T15:01:55Z</time>
      </trkpt>
      <trkpt lat="36.714700" lon="-118.978990">
        <ele>1804.887</ele>
        <time>2018-12-29T15:02:15Z</time>
      </trkpt>
      <trkpt lat="36.714700" lon="-118.978930">
        <ele>1804.873</ele>
        <time>2018-12-29T15:02:35Z</time>
      </trkpt>
      <trkpt lat="36.714700" lon="-118.978830">
        <ele>1804.792</ele>
        <time>2018-12-29T15:02:55Z</time>
      </trkpt>
      <trkpt lat="36.714700" lon="-118.978770">
        <ele>1804.734</ele>
        <time>2018-12-29T15:03:15Z</time>
      </trkpt>
      <trkpt lat="36.714710" lon="-118.978700">
        <ele>1804.255</ele>
        <time>2018-12-29T15:03:35Z</time>
      </trkpt>
      <trkpt lat="36.714720" lon="-118.978630">
        <ele>1803.210</ele>
        <time>2018-12-29T15:03:55Z</time>
      </trkpt>
      <trkpt lat="36.714740" lon="-118.978580">
        <ele>1802.808</ele>
        <time>2018-12-29T15:04:15Z</time>
      </trkpt>
      <trkpt lat="36.714760" lon="-118.978510">
        <ele>1801.886</ele>
        <time>2018-12-29T15:04:35Z</time>
      </trkpt>
      <trkpt lat="36.714780" lon="-118.978460">
        <ele>1801.214</ele>
        <time>2018-12-29T15:04:55Z</time>
      </trkpt>
      <trkpt lat="36.714820" lon="-118.978370">
        <ele>1801.229</ele>
        <time>2018-12-29T15:05:15Z</time>
      </trkpt>
      <trkpt lat="36.714850" lon="-118.978290">
        <ele>1801.079</ele>
        <time>2018-12-29T15:05:35Z</time>
      </trkpt>
      <trkpt lat="36.714890" lon="-118.978180">
        <ele>1801.163</ele>
        <time>2018-12-29T15:05:55Z</time>
      </trkpt>
      <trkpt lat="36.714920" lon="-118.978110">
        <ele>1801.823</ele>
        <time>2018-12-29T15:06:15Z</time>
      </trkpt>
      <trkpt lat="36.714930" lon="-118.978090">
        <ele>1802.059</ele>
        <time>2018-12-29T15:06:35Z</time>
      </trkpt>
      <trkpt lat="36.714960" lon="-118.978000">
        <ele>1802.448</ele>
        <time>2018-12-29T15:06:55Z</time>
      </trkpt>
      <trkpt lat="36.714980" lon="-118.977920">
        <ele>1802.559</ele>
        <time>2018-12-29T15:07:15Z</time>
      </trkpt>
      <trkpt lat="36.715000" lon="-118.977840">
        <ele>1803.103</ele>
        <time>2018-12-29T15:07:35Z</time>
      </trkpt>
      <trkpt lat="36.715010" lon="-118.977760">
        <ele>1803.423</ele>
        <time>2018-12-29T15:07:55Z</time>
      </trkpt>
      <trkpt lat="36.715010" lon="-118.977680">
        <ele>1803.308</ele>
        <time>2018-12-29T15:08:15Z</time>
      </trkpt>
      <trkpt lat="36.715010" lon="-118.977590">
        <ele>1803.758</ele>
        <time>2018-12-29T15:08:35Z</time>
      </trkpt>
      <trkpt lat="36.715010" lon="-118.977520">
        <ele>1804.326</ele>
        <time>2018-12-29T15:08:55Z</time>
      </trkpt>
      <trkpt lat="36.715010" lon="-118.977470">
        <ele>1804.721</ele>
        <time>2018-12-29T15:09:15Z</time>
      </trkpt>
      <trkpt lat="36.715000" lon="-118.977430">
        <ele>1804.761</ele>
        <time>2018-12-29T15:09:35Z</time>
      </trkpt>
      <trkpt lat="36.714990" lon="-118.977370">
        <ele>1804.995</ele>
        <time>2018-12-29T15:09:55Z</time>
      </trkpt>
      <trkpt lat="36.714970" lon="-118.977310">
        <ele>1805.215</ele>
        <time>2018-12-29T15:10:15Z</time>
      </trkpt>
      <trkpt lat="36.714960" lon="-118.977270">
        <ele>1805.471</ele>
        <time>2018-12-29T15:10:35Z</time>
      </trkpt>
      <trkpt lat="36.714950" lon="-118.977230">
        <ele>1805.730</ele>
        <time>2018-12-29T15:10:55Z</time>
      </trkpt>
      <trkpt lat="36.714930" lon="-118.977190">
        <ele>1805.423</ele>
        <time>2018-12-29T15:11:15Z</time>
      </trkpt>
      <trkpt lat="36.714910" lon="-118.977130">
        <ele>1805.483</ele>
        <time>2018-12-29T15:11:35Z</time>
      </trkpt>
      <trkpt lat="36.714860" lon="-118.977040">
        <ele>1805.111</ele>
        <time>2018-12-29T15:11:55Z</time>
      </trkpt>
      <trkpt lat="36.714840" lon="-118.976990">
        <ele>1806.508</ele>
        <time>2018-12-29T15:12:15Z</time>
      </trkpt>
      <trkpt lat="36.714810" lon="-118.976950">
        <ele>1807.065</ele>
        <time>2018-12-29T15:12:35Z</time>
      </trkpt>
      <trkpt lat="36.714780" lon="-118.976900">
        <ele>1807.673</ele>
        <time>2018-12-29T15:12:55Z</time>
      </trkpt>
      <trkpt lat="36.714660" lon="-118.976720">
        <ele>1807.958</ele>
        <time>2018-12-29T15:13:15Z</time>
      </trkpt>
      <trkpt lat="36.714510" lon="-118.976500">
        <ele>1809.968</ele>
        <time>2018-12-29T15:13:35Z</time>
      </trkpt>
      <trkpt lat="36.714460" lon="-118.976410">
        <ele>1812.012</ele>
        <time>2018-12-29T15:13:55Z</time>
      </trkpt>
      <trkpt lat="36.714400" lon="-118.976310">
        <ele>1813.412</ele>
        <time>2018-12-29T15:14:15Z</time>
      </trkpt>
      <trkpt lat="36.714290" lon="-118.976150">
        <ele>1813.428</ele>
        <time>2018-12-29T15:14:35Z</time>
      </trkpt>
      <trkpt lat="36.714240" lon="-118.976060">
        <ele>1814.017</ele>
        <time>2018-12-29T15:14:55Z</time>
      </trkpt>
      <trkpt lat="36.714180" lon="-118.975950">
        <ele>1814.846</ele>
        <time>2018-12-29T15:15:15Z</time>
      </trkpt>
      <trkpt lat="36.714130" lon="-118.975860">
        <ele>1815.488</ele>
        <time>2018-12-29T15:15:35Z</time>
      </trkpt>
      <trkpt lat="36.714070" lon="-118.975710">
        <ele>1816.116</ele>
        <time>2018-12-29T15:15:55Z</time>
      </trkpt>
      <trkpt lat="36.714020" lon="-118.975580">
        <ele>1815.608</ele>
        <time>2018-12-29T15:16:15Z</time>
      </trkpt>
      <trkpt lat="36.713990" lon="-118.975470">
        <ele>1816.257</ele>
        <time>2018-12-29T15:16:35Z</time>
      </trkpt>
      <trkpt lat="36.713950" lon="-118.975290">
        <ele>1817.575</ele>
        <time>2018-12-29T15:16:55Z</time>
      </trkpt>
      <trkpt lat="36.713900" lon="-118.975090">
        <ele>1818.370</ele>
        <time>2018-12-29T15:17:15Z</time>
      </trkpt>
      <trkpt lat="36.713810" lon="-118.974740">
        <ele>1817.880</ele>
        <time>2018-12-29T15:17:35Z</time>
      </trkpt>
      <trkpt lat="36.713770" lon="-118.974590">
        <ele>1817.644</ele>
        <time>2018-12-29T15:17:55Z</time>
      </trkpt>
      <trkpt lat="36.713730" lon="-118.974480">
        <ele>1818.884</ele>
        <time>2018-12-29T15:18:15Z</time>
      </trkpt>
      <trkpt lat="36.713710" lon="-118.974410">
        <ele>1819.880</ele>
        <time>2018-12-29T15:18:35Z</time>
      </trkpt>
      <trkpt lat="36.713680" lon="-118.974350">
        <ele>1820.519</ele>
        <time>2018-12-29T15:18:55Z</time>
      </trkpt>
      <trkpt lat="36.713660" lon="-118.974290">
        <ele>1821.479</ele>
        <time>2018-12-29T15:19:15Z</time>
      </trkpt>
      <trkpt lat="36.713630" lon="-118.974230">
        <ele>1822.405</ele>
        <time>2018-12-29T15:19:35Z</time>
      </trkpt>
      <trkpt lat="36.713570" lon="-118.974140">
        <ele>1823.525</ele>
        <time>2018-12-29T15:19:55Z</time>
      </trkpt>
      <trkpt lat="36.713520" lon="-118.974060">
        <ele>1824.408</ele>
        <time>2018-12-29T15:20:15Z</time>
      </trkpt>
      <trkpt lat="36.713430" lon="-118.973940">
        <ele>1825.450</ele>
        <time>2018-12-29T15:20:35Z</time>
      </trkpt>
      <trkpt lat="36.713360" lon="-118.973830">
        <ele>1826.428</ele>
        <time>2018-12-29T15:20:55Z</time>
      </trkpt>
      <trkpt lat="36.713250" lon="-118.973670">
        <ele>1827.433</ele>
        <time>2018-12-29T15:21:15Z</time>
      </trkpt>
      <trkpt lat="36.713180" lon="-118.973540">
        <ele>1828.233</ele>
        <time>2018-12-29T15:21:35Z</time>
      </trkpt>
      <trkpt lat="36.713130" lon="-118.973440">
        <ele>1828.697</ele>
        <time>2018-12-29T15:21:55Z</time>
      </trkpt>
      <trkpt lat="36.713100" lon="-118.973350">
        <ele>1829.087</ele>
        <time>2018-12-29T15:22:15Z</time>
      </trkpt>
      <trkpt lat="36.713050" lon="-118.973220">
        <ele>1829.653</ele>
        <time>2018-12-29T15:22:35Z</time>
      </trkpt>
      <trkpt lat="36.713030" lon="-118.973110">
        <ele>1830.742</ele>
        <time>2018-12-29T15:22:55Z</time>
      </trkpt>
      <trkpt lat="36.712990" lon="-118.972950">
        <ele>1832.198</ele>
        <time>2018-12-29T15:23:15Z</time>
      </trkpt>
      <trkpt lat="36.712980" lon="-118.972840">
        <ele>1832.815</ele>
        <time>2018-12-29T15:23:35Z</time>
      </trkpt>
      <trkpt lat="36.712980" lon="-118.972760">
        <ele>1833.326</ele>
        <time>2018-12-29T15:23:55Z</time>
      </trkpt>
      <trkpt lat="36.712980" lon="-118.972690">
        <ele>1833.708</ele>
        <time>2018-12-29T15:24:15Z</time>
      </trkpt>
      <trkpt lat="36.712980" lon="-118.972600">
        <ele>1834.172</ele>
        <time>2018-12-29T15:24:35Z</time>
      </trkpt>
      <trkpt lat="36.712980" lon="-118.972530">
        <ele>1834.410</ele>
        <time>2018-12-29T15:24:55Z</time>
      </trkpt>
      <trkpt lat="36.712990" lon="-118.972460">
        <ele>1834.915</ele>
        <time>2018-12-29T15:25:15Z</time>
      </trkpt>
      <trkpt lat="36.713020" lon="-118.972310">
        <ele>1835.955</ele>
        <time>2018-12-29T15:25:35Z</time>
      </trkpt>
      <trkpt lat="36.713050" lon="-118.972170">
        <ele>1836.649</ele>
        <time>2018-12-29T15:25:55Z</time>
      </trkpt>
      <trkpt lat="36.713090" lon="-118.972060">
        <ele>1837.259</ele>
        <time>2018-12-29T15:26:15Z</time>
      </trkpt>
      <trkpt lat="36.713140" lon="-118.971940">
        <ele>1837.475</ele>
        <time>2018-12-29T15:26:35Z</time>
      </trkpt>
      <trkpt lat="36.713190" lon="-118.971840">
        <ele>1837.854</ele>
        <time>2018-12-29T15:26:55Z</time>
      </trkpt>
      <trkpt lat="36.713220" lon="-118.971770">
        <ele>1837.969</ele>
        <time>2018-12-29T15:27:15Z</time>
      </trkpt>
      <trkpt lat="36.713290" lon="-118.971660">
        <ele>1838.204</ele>
        <time>2018-12-29T15:27:35Z</time>
      </trkpt>
      <trkpt lat="36.713340" lon="-118.971590">
        <ele>1838.324</ele>
        <time>2018-12-29T15:27:55Z</time>
      </trkpt>
      <trkpt lat="36.713400" lon="-118.971520">
        <ele>1838.608</ele>
        <time>2018-12-29T15:28:15Z</time>
      </trkpt>
      <trkpt lat="36.713460" lon="-118.971460">
        <ele>1839.149</ele>
        <time>2018-12-29T15:28:35Z</time>
      </trkpt>
      <trkpt lat="36.713520" lon="-118.971410">
        <ele>1839.637</ele>
        <time>2018-12-29T15:28:55Z</time>
      </trkpt>
      <trkpt lat="36.713570" lon="-118.971380">
        <ele>1839.972</ele>
        <time>2018-12-29T15:29:15Z</time>
      </trkpt>
      <trkpt lat="36.713600" lon="-118.971350">
        <ele>1839.852</ele>
        <time>2018-12-29T15:29:35Z</time>
      </trkpt>
      <trkpt lat="36.713660" lon="-118.971320">
        <ele>1840.046</ele>
        <time>2018-12-29T15:29:55Z</time>
      </trkpt>
      <trkpt lat="36.713760" lon="-118.971260">
        <ele>1839.416</ele>
        <time>2018-12-29T15:30:15Z</time>
      </trkpt>
      <trkpt lat="36.713820" lon="-118.971240">
        <ele>1839.732</ele>
        <time>2018-12-29T15:30:35Z</time>
      </trkpt>
      <trkpt lat="36.713910" lon="-118.971210">
        <ele>1840.211</ele>
        <time>2018-12-29T15:30:55Z</time>
      </trkpt>
      <trkpt lat="36.713980" lon="-118.971190">
        <ele>1840.752</ele>
        <time>2018-12-29T15:31:15Z</time>
      </trkpt>
      <trkpt lat="36.714090" lon="-118.971170">
        <ele>1841.453</ele>
        <time>2018-12-29T15:31:35Z</time>
      </trkpt>
      <trkpt lat="36.714250" lon="-118.971140">
        <ele>1842.208</ele>
        <time>2018-12-29T15:31:55Z</time>
      </trkpt>
      <trkpt lat="36.714350" lon="-118.971130">
        <ele>1842.708</ele>
        <time>2018-12-29T15:32:15Z</time>
      </trkpt>
      <trkpt lat="36.714430" lon="-118.971110">
        <ele>1842.358</ele>
        <time>2018-12-29T15:32:35Z</time>
      </trkpt>
      <trkpt lat="36.714600" lon="-118.971080">
        <ele>1842.046</ele>
        <time>2018-12-29T15:32:55Z</time>
      </trkpt>
      <trkpt lat="36.714730" lon="-118.971060">
        <ele>1843.481</ele>
        <time>2018-12-29T15:33:15Z</time>
      </trkpt>
      <trkpt lat="36.714820" lon="-118.971030">
        <ele>1844.091</ele>
        <time>2018-12-29T15:33:35Z</time>
      </trkpt>
      <trkpt lat="36.714930" lon="-118.970990">
        <ele>1844.695</ele>
        <time>2018-12-29T15:33:55Z</time>
      </trkpt>
      <trkpt lat="36.715020" lon="-118.970960">
        <ele>1845.465</ele>
        <time>2018-12-29T15:34:15Z</time>
      </trkpt>
      <trkpt lat="36.715090" lon="-118.970920">
        <ele>1845.861</ele>
        <time>2018-12-29T15:34:35Z</time>
      </trkpt>
      <trkpt lat="36.715150" lon="-118.970880">
        <ele>1846.230</ele>
        <time>2018-12-29T15:34:55Z</time>
      </trkpt>
      <trkpt lat="36.715240" lon="-118.970830">
        <ele>1846.551</ele>
        <time>2018-12-29T15:35:15Z</time>
      </trkpt>
      <trkpt lat="36.715290" lon="-118.970790">
        <ele>1846.601</ele>
        <time>2018-12-29T15:35:35Z</time>
      </trkpt>
      <trkpt lat="36.715320" lon="-118.970760">
        <ele>1846.711</ele>
        <time>2018-12-29T15:35:55Z</time>
      </trkpt>
      <trkpt lat="36.715370" lon="-118.970720">
        <ele>1847.008</ele>
        <time>2018-12-29T15:36:15Z</time>
      </trkpt>
      <trkpt lat="36.715430" lon="-118.970660">
        <ele>1847.568</ele>
        <time>2018-12-29T15:36:35Z</time>
      </trkpt>
      <trkpt lat="36.715600" lon="-118.970510">
        <ele>1849.486</ele>
        <time>2018-12-29T15:36:55Z</time>
      </trkpt>
      <trkpt lat="36.715790" lon="-118.970340">
        <ele>1851.831</ele>
        <time>2018-12-29T15:37:15Z</time>
      </trkpt>
      <trkpt lat="36.715930" lon="-118.970210">
        <ele>1852.551</ele>
        <time>2018-12-29T15:37:35Z</time>
      </trkpt>
      <trkpt lat="36.716060" lon="-118.970090">
        <ele>1855.565</ele>
        <time>2018-12-29T15:37:55Z</time>
      </trkpt>
      <trkpt lat="36.716150" lon="-118.970010">
        <ele>1857.615</ele>
        <time>2018-12-29T15:38:15Z</time>
      </trkpt>
      <trkpt lat="36.716240" lon="-118.969920">
        <ele>1857.731</ele>
        <time>2018-12-29T15:38:35Z</time>
      </trkpt>
      <trkpt lat="36.716310" lon="-118.969830">
        <ele>1857.690</ele>
        <time>2018-12-29T15:38:55Z</time>
      </trkpt>
      <trkpt lat="36.716340" lon="-118.969790">
        <ele>1858.086</ele>
        <time>2018-12-29T15:39:15Z</time>
      </trkpt>
      <trkpt lat="36.716360" lon="-118.969740">
        <ele>1857.760</ele>
        <time>2018-12-29T15:39:35Z</time>
      </trkpt>
      <trkpt lat="36.716390" lon="-118.969690">
        <ele>1857.626</ele>
        <time>2018-12-29T15:39:55Z</time>
      </trkpt>
      <trkpt lat="36.716440" lon="-118.969610">
        <ele>1856.808</ele>
        <time>2018-12-29T15:40:15Z</time>
      </trkpt>
      <trkpt lat="36.716460" lon="-118.969540">
        <ele>1856.021</ele>
        <time>2018-12-29T15:40:35Z</time>
      </trkpt>
      <trkpt lat="36.716480" lon="-118.969470">
        <ele>1855.559</ele>
        <time>2018-12-29T15:40:55Z</time>
      </trkpt>
      <trkpt lat="36.716500" lon="-118.969390">
        <ele>1854.734</ele>
        <time>2018-12-29T15:41:15Z</time>
      </trkpt>
      <trkpt lat="36.716510" lon="-118.969340">
        <ele>1854.114</ele>
        <time>2018-12-29T15:41:35Z</time>
      </trkpt>
      <trkpt lat="36.716520" lon="-118.969290">
        <ele>1853.798</ele>
        <time>2018-12-29T15:41:55Z</time>
      </trkpt>
      <trkpt lat="36.716520" lon="-118.969220">
        <ele>1853.858</ele>
        <time>2018-12-29T15:42:15Z</time>
      </trkpt>
      <trkpt lat="36.716530" lon="-118.969170">
        <ele>1853.974</ele>
        <time>2018-12-29T15:42:35Z</time>
      </trkpt>
      <trkpt lat="36.716530" lon="-118.969110">
        <ele>1854.053</ele>
        <time>2018-12-29T15:42:55Z</time>
      </trkpt>
      <trkpt lat="36.716520" lon="-118.969020">
        <ele>1854.129</ele>
        <time>2018-12-29T15:43:15Z</time>
      </trkpt>
      <trkpt lat="36.716510" lon="-118.968960">
        <ele>1854.000</ele>
        <time>2018-12-29T15:43:35Z</time>
      </trkpt>
      <trkpt lat="36.716510" lon="-118.968910">
        <ele>1854.020</ele>
        <time>2018-12-29T15:43:55Z</time>
      </trkpt>
      <trkpt lat="36.716480" lon="-118.968790">
        <ele>1853.808</ele>
        <time>2018-12-29T15:44:15Z</time>
      </trkpt>
      <trkpt lat="36.716460" lon="-118.968710">
        <ele>1854.675</ele>
        <time>2018-12-29T15:44:35Z</time>
      </trkpt>
      <trkpt lat="36.716420" lon="-118.968630">
        <ele>1856.233</ele>
        <time>2018-12-29T15:44:55Z</time>
      </trkpt>
      <trkpt lat="36.716370" lon="-118.968520">
        <ele>1858.818</ele>
        <time>2018-12-29T15:45:15Z</time>
      </trkpt>
      <trkpt lat="36.716320" lon="-118.968450">
        <ele>1860.838</ele>
        <time>2018-12-29T15:45:35Z</time>
      </trkpt>
      <trkpt lat="36.716270" lon="-118.968380">
        <ele>1863.292</ele>
        <time>2018-12-29T15:45:55Z</time>
      </trkpt>
      <trkpt lat="36.716220" lon="-118.968340">
        <ele>1863.962</ele>
        <time>2018-12-29T15:46:15Z</time>
      </trkpt>
      <trkpt lat="36.716170" lon="-118.968290">
        <ele>1864.618</ele>
        <time>2018-12-29T15:46:35Z</time>
      </trkpt>
      <trkpt lat="36.716120" lon="-118.968250">
        <ele>1865.147</ele>
        <time>2018-12-29T15:46:55Z</time>
      </trkpt>
      <trkpt lat="36.716030" lon="-118.968200">
        <ele>1865.379</ele>
        <time>2018-12-29T15:47:15Z</time>
      </trkpt>
      <trkpt lat="36.715970" lon="-118.968160">
        <ele>1865.605</ele>
        <time>2018-12-29T15:47:35Z</time>
      </trkpt>
      <trkpt lat="36.715940" lon="-118.968140">
        <ele>1865.725</ele>
        <time>2018-12-29T15:47:55Z</time>
      </trkpt>
      <trkpt lat="36.715900" lon="-118.968130">
        <ele>1865.408</ele>
        <time>2018-12-29T15:48:15Z</time>
      </trkpt>
      <trkpt lat="36.715770" lon="-118.968060">
        <ele>1865.230</ele>
        <time>2018-12-29T15:48:35Z</time>
      </trkpt>
      <trkpt lat="36.715670" lon="-118.968000">
        <ele>1865.548</ele>
        <time>2018-12-29T15:48:55Z</time>
      </trkpt>
      <trkpt lat="36.715550" lon="-118.967930">
        <ele>1867.913</ele>
        <time>2018-12-29T15:49:15Z</time>
      </trkpt>
      <trkpt lat="36.715450" lon="-118.967840">
        <ele>1870.623</ele>
        <time>2018-12-29T15:49:35Z</time>
      </trkpt>
      <trkpt lat="36.715320" lon="-118.967740">
        <ele>1871.777</ele>
        <time>2018-12-29T15:49:55Z</time>
      </trkpt>
      <trkpt lat="36.715200" lon="-118.967610">
        <ele>1872.447</ele>
        <time>2018-12-29T15:50:15Z</time>
      </trkpt>
      <trkpt lat="36.715110" lon="-118.967500">
        <ele>1872.793</ele>
        <time>2018-12-29T15:50:35Z</time>
      </trkpt>
      <trkpt lat="36.715020" lon="-118.967370">
        <ele>1873.282</ele>
        <time>2018-12-29T15:50:55Z</time>
      </trkpt>
      <trkpt lat="36.714960" lon="-118.967270">
        <ele>1873.572</ele>
        <time>2018-12-29T15:51:15Z</time>
      </trkpt>
      <trkpt lat="36.714910" lon="-118.967180">
        <ele>1873.713</ele>
        <time>2018-12-29T15:51:35Z</time>
      </trkpt>
      <trkpt lat="36.714870" lon="-118.967090">
        <ele>1873.914</ele>
        <time>2018-12-29T15:51:55Z</time>
      </trkpt>
      <trkpt lat="36.714810" lon="-118.966920">
        <ele>1874.508</ele>
        <time>2018-12-29T15:52:15Z</time>
      </trkpt>
      <trkpt lat="36.714750" lon="-118.966750">
        <ele>1875.050</ele>
        <time>2018-12-29T15:52:35Z</time>
      </trkpt>
      <trkpt lat="36.714710" lon="-118.966600">
        <ele>1875.868</ele>
        <time>2018-12-29T15:52:55Z</time>
      </trkpt>
      <trkpt lat="36.714670" lon="-118.966430">
        <ele>1876.713</ele>
        <time>2018-12-29T15:53:15Z</time>
      </trkpt>
      <trkpt lat="36.714630" lon="-118.966300">
        <ele>1876.873</ele>
        <time>2018-12-29T15:53:35Z</time>
      </trkpt>
      <trkpt lat="36.714590" lon="-118.966160">
        <ele>1876.577</ele>
        <time>2018-12-29T15:53:55Z</time>
      </trkpt>
      <trkpt lat="36.714540" lon="-118.965990">
        <ele>1876.527</ele>
        <time>2018-12-29T15:54:15Z</time>
      </trkpt>
      <trkpt lat="36.714500" lon="-118.965820">
        <ele>1877.273</ele>
        <time>2018-12-29T15:54:35Z</time>
      </trkpt>
      <trkpt lat="36.714470" lon="-118.965700">
        <ele>1877.512</ele>
        <time>2018-12-29T15:54:55Z</time>
      </trkpt>
      <trkpt lat="36.714450" lon="-118.965580">
        <ele>1878.312</ele>
        <time>2018-12-29T15:55:15Z</time>
      </trkpt>
      <trkpt lat="36.714440" lon="-118.965470">
        <ele>1879.332</ele>
        <time>2018-12-29T15:55:35Z</time>
      </trkpt>
      <trkpt lat="36.714430" lon="-118.965370">
        <ele>1880.205</ele>
        <time>2018-12-29T15:55:55Z</time>
      </trkpt>
      <trkpt lat="36.714430" lon="-118.965300">
        <ele>1881.208</ele>
        <time>2018-12-29T15:56:15Z</time>
      </trkpt>
      <trkpt lat="36.714440" lon="-118.965250">
        <ele>1882.284</ele>
        <time>2018-12-29T15:56:35Z</time>
      </trkpt>
      <trkpt lat="36.714450" lon="-118.965170">
        <ele>1883.772</ele>
        <time>2018-12-29T15:56:55Z</time>
      </trkpt>
      <trkpt lat="36.714460" lon="-118.965070">
        <ele>1884.987</ele>
        <time>2018-12-29T15:57:15Z</time>
      </trkpt>
      <trkpt lat="36.714490" lon="-118.964970">
        <ele>1886.317</ele>
        <time>2018-12-29T15:57:35Z</time>
      </trkpt>
      <trkpt lat="36.714520" lon="-118.964860">
        <ele>1887.551</ele>
        <time>2018-12-29T15:57:55Z</time>
      </trkpt>
      <trkpt lat="36.714560" lon="-118.964760">
        <ele>1887.971</ele>
        <time>2018-12-29T15:58:15Z</time>
      </trkpt>
      <trkpt lat="36.714600" lon="-118.964690">
        <ele>1888.487</ele>
        <time>2018-12-29T15:58:35Z</time>
      </trkpt>
      <trkpt lat="36.714610" lon="-118.964660">
        <ele>1888.446</ele>
        <time>2018-12-29T15:58:55Z</time>
      </trkpt>
      <trkpt lat="36.714660" lon="-118.964590">
        <ele>1888.866</ele>
        <time>2018-12-29T15:59:15Z</time>
      </trkpt>
      <trkpt lat="36.714730" lon="-118.964500">
        <ele>1888.929</ele>
        <time>2018-12-29T15:59:35Z</time>
      </trkpt>
      <trkpt lat="36.714800" lon="-118.964430">
        <ele>1889.021</ele>
        <time>2018-12-29T15:59:55Z</time>
      </trkpt>
      <trkpt lat="36.714850" lon="-118.964390">
        <ele>1889.108</ele>
        <time>2018-12-29T16:00:15Z</time>
      </trkpt>
      <trkpt lat="36.714910" lon="-118.964340">
        <ele>1889.189</ele>
        <time>2018-12-29T16:00:35Z</time>
      </trkpt>
      <trkpt lat="36.714950" lon="-118.964310">
        <ele>1889.027</ele>
        <time>2018-12-29T16:00:55Z</time>
      </trkpt>
      <trkpt lat="36.715020" lon="-118.964270">
        <ele>1889.072</ele>
        <time>2018-12-29T16:01:15Z</time>
      </trkpt>
      <trkpt lat="36.715080" lon="-118.964240">
        <ele>1889.172</ele>
        <time>2018-12-29T16:01:35Z</time>
      </trkpt>
      <trkpt lat="36.715180" lon="-118.964200">
        <ele>1889.196</ele>
        <time>2018-12-29T16:01:55Z</time>
      </trkpt>
      <trkpt lat="36.715230" lon="-118.964190">
        <ele>1889.216</ele>
        <time>2018-12-29T16:02:15Z</time>
      </trkpt>
      <trkpt lat="36.715320" lon="-118.964160">
        <ele>1889.152</ele>
        <time>2018-12-29T16:02:35Z</time>
      </trkpt>
      <trkpt lat="36.715840" lon="-118.964070">
        <ele>1891.141</ele>
        <time>2018-12-29T16:02:55Z</time>
      </trkpt>
      <trkpt lat="36.716220" lon="-118.963970">
        <ele>1894.118</ele>
        <time>2018-12-29T16:03:15Z</time>
      </trkpt>
      <trkpt lat="36.716660" lon="-118.963840">
        <ele>1895.898</ele>
        <time>2018-12-29T16:03:35Z</time>
      </trkpt>
      <trkpt lat="36.716830" lon="-118.963780">
        <ele>1896.317</ele>
        <time>2018-12-29T16:03:55Z</time>
      </trkpt>
      <trkpt lat="36.717070" lon="-118.963700">
        <ele>1897.208</ele>
        <time>2018-12-29T16:04:15Z</time>
      </trkpt>
      <trkpt lat="36.717390" lon="-118.963610">
        <ele>1897.034</ele>
        <time>2018-12-29T16:04:35Z</time>
      </trkpt>
      <trkpt lat="36.717520" lon="-118.963580">
        <ele>1896.412</ele>
        <time>2018-12-29T16:04:55Z</time>
      </trkpt>
      <trkpt lat="36.717630" lon="-118.963550">
        <ele>1896.167</ele>
        <time>2018-12-29T16:05:15Z</time>
      </trkpt>
      <trkpt lat="36.717710" lon="-118.963540">
        <ele>1896.077</ele>
        <time>2018-12-29T16:05:35Z</time>
      </trkpt>
      <trkpt lat="36.717780" lon="-118.963530">
        <ele>1895.941</ele>
        <time>2018-12-29T16:05:55Z</time>
      </trkpt>
      <trkpt lat="36.717900" lon="-118.963530">
        <ele>1895.491</ele>
        <time>2018-12-29T16:06:15Z</time>
      </trkpt>
      <trkpt lat="36.717990" lon="-118.963530">
        <ele>1895.447</ele>
        <time>2018-12-29T16:06:35Z</time>
      </trkpt>
      <trkpt lat="36.718020" lon="-118.963530">
        <ele>1895.576</ele>
        <time>2018-12-29T16:06:55Z</time>
      </trkpt>
      <trkpt lat="36.718150" lon="-118.963540">
        <ele>1895.651</ele>
        <time>2018-12-29T16:07:15Z</time>
      </trkpt>
      <trkpt lat="36.718290" lon="-118.963560">
        <ele>1896.001</ele>
        <time>2018-12-29T16:07:35Z</time>
      </trkpt>
      <trkpt lat="36.718390" lon="-118.963580">
        <ele>1896.511</ele>
        <time>2018-12-29T16:07:55Z</time>
      </trkpt>
      <trkpt lat="36.718550" lon="-118.963640">
        <ele>1898.408</ele>
        <time>2018-12-29T16:08:15Z</time>
      </trkpt>
      <trkpt lat="36.718650" lon="-118.963690">
        <ele>1900.188</ele>
        <time>2018-12-29T16:08:35Z</time>
      </trkpt>
      <trkpt lat="36.718790" lon="-118.963770">
        <ele>1902.746</ele>
        <time>2018-12-29T16:08:55Z</time>
      </trkpt>
      <trkpt lat="36.718900" lon="-118.963840">
        <ele>1904.261</ele>
        <time>2018-12-29T16:09:15Z</time>
      </trkpt>
      <trkpt lat="36.718990" lon="-118.963910">
        <ele>1905.611</ele>
        <time>2018-12-29T16:09:35Z</time>
      </trkpt>
      <trkpt lat="36.719070" lon="-118.963980">
        <ele>1907.155</ele>
        <time>2018-12-29T16:09:55Z</time>
      </trkpt>
      <trkpt lat="36.719130" lon="-118.964050">
        <ele>1908.765</ele>
        <time>2018-12-29T16:10:15Z</time>
      </trkpt>
      <trkpt lat="36.719220" lon="-118.964130">
        <ele>1910.491</ele>
        <time>2018-12-29T16:10:35Z</time>
      </trkpt>
      <trkpt lat="36.719280" lon="-118.964210">
        <ele>1911.660</ele>
        <time>2018-12-29T16:10:55Z</time>
      </trkpt>
      <trkpt lat="36.719330" lon="-118.964270">
        <ele>1912.622</ele>
        <time>2018-12-29T16:11:15Z</time>
      </trkpt>
      <trkpt lat="36.719380" lon="-118.964340">
        <ele>1913.262</ele>
        <time>2018-12-29T16:11:35Z</time>
      </trkpt>
      <trkpt lat="36.719430" lon="-118.964410">
        <ele>1913.608</ele>
        <time>2018-12-29T16:11:55Z</time>
      </trkpt>
      <trkpt lat="36.719480" lon="-118.964500">
        <ele>1913.808</ele>
        <time>2018-12-29T16:12:15Z</time>
      </trkpt>
      <trkpt lat="36.719500" lon="-118.964530">
        <ele>1913.955</ele>
        <time>2018-12-29T16:12:35Z</time>
      </trkpt>
      <trkpt lat="36.719530" lon="-118.964590">
        <ele>1913.963</ele>
        <time>2018-12-29T16:12:55Z</time>
      </trkpt>
      <trkpt lat="36.719560" lon="-118.964660">
        <ele>1913.928</ele>
        <time>2018-12-29T16:13:15Z</time>
      </trkpt>
      <trkpt lat="36.719960" lon="-118.965580">
        <ele>1918.628</ele>
        <time>2018-12-29T16:13:35Z</time>
      </trkpt>
      <trkpt lat="36.720000" lon="-118.965680">
        <ele>1920.962</ele>
        <time>2018-12-29T16:13:55Z</time>
      </trkpt>
      <trkpt lat="36.720030" lon="-118.965730">
        <ele>1921.522</ele>
        <time>2018-12-29T16:14:15Z</time>
      </trkpt>
      <trkpt lat="36.720080" lon="-118.965800">
        <ele>1921.898</ele>
        <time>2018-12-29T16:14:35Z</time>
      </trkpt>
      <trkpt lat="36.720140" lon="-118.965870">
        <ele>1921.837</ele>
        <time>2018-12-29T16:14:55Z</time>
      </trkpt>
      <trkpt lat="36.720170" lon="-118.965910">
        <ele>1921.187</ele>
        <time>2018-12-29T16:15:15Z</time>
      </trkpt>
      <trkpt lat="36.720210" lon="-118.965940">
        <ele>1920.842</ele>
        <time>2018-12-29T16:15:35Z</time>
      </trkpt>
      <trkpt lat="36.720290" lon="-118.966000">
        <ele>1920.026</ele>
        <time>2018-12-29T16:15:55Z</time>
      </trkpt>
      <trkpt lat="36.720380" lon="-118.966050">
        <ele>1919.608</ele>
        <time>2018-12-29T16:16:15Z</time>
      </trkpt>
      <trkpt lat="36.720500" lon="-118.966100">
        <ele>1919.651</ele>
        <time>2018-12-29T16:16:35Z</time>
      </trkpt>
      <trkpt lat="36.720770" lon="-118.966170">
        <ele>1921.239</ele>
        <time>2018-12-29T16:16:55Z</time>
      </trkpt>
      <trkpt lat="36.720840" lon="-118.966200">
        <ele>1921.564</ele>
        <time>2018-12-29T16:17:15Z</time>
      </trkpt>
      <trkpt lat="36.720900" lon="-118.966220">
        <ele>1922.044</ele>
        <time>2018-12-29T16:17:35Z</time>
      </trkpt>
      <trkpt lat="36.720980" lon="-118.966270">
        <ele>1922.148</ele>
        <time>2018-12-29T16:17:55Z</time>
      </trkpt>
      <trkpt lat="36.721040" lon="-118.966320">
        <ele>1921.878</ele>
        <time>2018-12-29T16:18:15Z</time>
      </trkpt>
      <trkpt lat="36.721110" lon="-118.966380">
        <ele>1921.734</ele>
        <time>2018-12-29T16:18:35Z</time>
      </trkpt>
      <trkpt lat="36.721180" lon="-118.966450">
        <ele>1921.673</ele>
        <time>2018-12-29T16:18:55Z</time>
      </trkpt>
      <trkpt lat="36.721230" lon="-118.966520">
        <ele>1921.355</ele>
        <time>2018-12-29T16:19:15Z</time>
      </trkpt>
      <trkpt lat="36.721290" lon="-118.966630">
        <ele>1922.207</ele>
        <time>2018-12-29T16:19:35Z</time>
      </trkpt>
      <trkpt lat="36.721320" lon="-118.966690">
        <ele>1922.917</ele>
        <time>2018-12-29T16:19:55Z</time>
      </trkpt>
      <trkpt lat="36.721340" lon="-118.966760">
        <ele>1923.408</ele>
        <time>2018-12-29T16:20:15Z</time>
      </trkpt>
      <trkpt lat="36.721370" lon="-118.966850">
        <ele>1924.158</ele>
        <time>2018-12-29T16:20:35Z</time>
      </trkpt>
      <trkpt lat="36.721390" lon="-118.966940">
        <ele>1924.696</ele>
        <time>2018-12-29T16:20:55Z</time>
      </trkpt>
      <trkpt lat="36.721410" lon="-118.967020">
        <ele>1925.031</ele>
        <time>2018-12-29T16:21:15Z</time>
      </trkpt>
      <trkpt lat="36.721410" lon="-118.967090">
        <ele>1924.881</ele>
        <time>2018-12-29T16:21:35Z</time>
      </trkpt>
      <trkpt lat="36.721420" lon="-118.967160">
        <ele>1925.155</ele>
        <time>2018-12-29T16:21:55Z</time>
      </trkpt>
      <trkpt lat="36.721420" lon="-118.967230">
        <ele>1924.925</ele>
        <time>2018-12-29T16:22:15Z</time>
      </trkpt>
      <trkpt lat="36.721400" lon="-118.967370">
        <ele>1924.641</ele>
        <time>2018-12-29T16:22:35Z</time>
      </trkpt>
      <trkpt lat="36.721380" lon="-118.967460">
        <ele>1926.360</ele>
        <time>2018-12-29T16:22:55Z</time>
      </trkpt>
      <trkpt lat="36.721350" lon="-118.967560">
        <ele>1927.733</ele>
        <time>2018-12-29T16:23:15Z</time>
      </trkpt>
      <trkpt lat="36.721310" lon="-118.967670">
        <ele>1928.023</ele>
        <time>2018-12-29T16:23:35Z</time>
      </trkpt>
      <trkpt lat="36.721300" lon="-118.967690">
        <ele>1927.815</ele>
        <time>2018-12-29T16:23:55Z</time>
      </trkpt>
      <trkpt lat="36.721220" lon="-118.967850">
        <ele>1925.808</ele>
        <time>2018-12-29T16:24:15Z</time>
      </trkpt>
      <trkpt lat="36.721150" lon="-118.967980">
        <ele>1923.966</ele>
        <time>2018-12-29T16:24:35Z</time>
      </trkpt>
      <trkpt lat="36.721080" lon="-118.968090">
        <ele>1921.984</ele>
        <time>2018-12-29T16:24:55Z</time>
      </trkpt>
      <trkpt lat="36.721010" lon="-118.968220">
        <ele>1920.359</ele>
        <time>2018-12-29T16:25:15Z</time>
      </trkpt>
      <trkpt lat="36.720940" lon="-118.968380">
        <ele>1920.549</ele>
        <time>2018-12-29T16:25:35Z</time>
      </trkpt>
      <trkpt lat="36.720900" lon="-118.968540">
        <ele>1922.293</ele>
        <time>2018-12-29T16:25:55Z</time>
      </trkpt>
      <trkpt lat="36.720860" lon="-118.968680">
        <ele>1925.213</ele>
        <time>2018-12-29T16:26:15Z</time>
      </trkpt>
      <trkpt lat="36.720830" lon="-118.968850">
        <ele>1928.279</ele>
        <time>2018-12-29T16:26:35Z</time>
      </trkpt>
      <trkpt lat="36.720820" lon="-118.969000">
        <ele>1929.828</ele>
        <time>2018-12-29T16:26:55Z</time>
      </trkpt>
      <trkpt lat="36.720820" lon="-118.969170">
        <ele>1931.466</ele>
        <time>2018-12-29T16:27:15Z</time>
      </trkpt>
      <trkpt lat="36.720830" lon="-118.969230">
        <ele>1932.129</ele>
        <time>2018-12-29T16:27:35Z</time>
      </trkpt>
      <trkpt lat="36.720830" lon="-118.969320">
        <ele>1932.821</ele>
        <time>2018-12-29T16:27:55Z</time>
      </trkpt>
      <trkpt lat="36.720850" lon="-118.969440">
        <ele>1932.808</ele>
        <time>2018-12-29T16:28:15Z</time>
      </trkpt>
      <trkpt lat="36.720890" lon="-118.969560">
        <ele>1933.519</ele>
        <time>2018-12-29T16:28:35Z</time>
      </trkpt>
      <trkpt lat="36.720920" lon="-118.969690">
        <ele>1933.887</ele>
        <time>2018-12-29T16:28:55Z</time>
      </trkpt>
      <trkpt lat="36.720960" lon="-118.969790">
        <ele>1934.472</ele>
        <time>2018-12-29T16:29:15Z</time>
      </trkpt>
      <trkpt lat="36.721000" lon="-118.969880">
        <ele>1934.882</ele>
        <time>2018-12-29T16:29:35Z</time>
      </trkpt>
      <trkpt lat="36.721070" lon="-118.970020">
        <ele>1934.636</ele>
        <time>2018-12-29T16:29:55Z</time>
      </trkpt>
      <trkpt lat="36.721130" lon="-118.970110">
        <ele>1934.976</ele>
        <time>2018-12-29T16:30:15Z</time>
      </trkpt>
      <trkpt lat="36.721180" lon="-118.970180">
        <ele>1935.112</ele>
        <time>2018-12-29T16:30:35Z</time>
      </trkpt>
      <trkpt lat="36.721250" lon="-118.970270">
        <ele>1935.041</ele>
        <time>2018-12-29T16:30:55Z</time>
      </trkpt>
      <trkpt lat="36.721300" lon="-118.970320">
        <ele>1934.042</ele>
        <time>2018-12-29T16:31:15Z</time>
      </trkpt>
      <trkpt lat="36.721360" lon="-118.970370">
        <ele>1933.022</ele>
        <time>2018-12-29T16:31:35Z</time>
      </trkpt>
      <trkpt lat="36.721380" lon="-118.970390">
        <ele>1932.614</ele>
        <time>2018-12-29T16:31:55Z</time>
      </trkpt>
      <trkpt lat="36.721480" lon="-118.970480">
        <ele>1931.108</ele>
        <time>2018-12-29T16:32:15Z</time>
      </trkpt>
      <trkpt lat="36.721580" lon="-118.970530">
        <ele>1930.597</ele>
        <time>2018-12-29T16:32:35Z</time>
      </trkpt>
      <trkpt lat="36.721690" lon="-118.970590">
        <ele>1929.945</ele>
        <time>2018-12-29T16:32:55Z</time>
      </trkpt>
      <trkpt lat="36.721770" lon="-118.970620">
        <ele>1929.740</ele>
        <time>2018-12-29T16:33:15Z</time>
      </trkpt>
      <trkpt lat="36.721830" lon="-118.970640">
        <ele>1929.770</ele>
        <time>2018-12-29T16:33:35Z</time>
      </trkpt>
      <trkpt lat="36.721920" lon="-118.970670">
        <ele>1929.994</ele>
        <time>2018-12-29T16:33:55Z</time>
      </trkpt>
      <trkpt lat="36.722010" lon="-118.970680">
        <ele>1930.314</ele>
        <time>2018-12-29T16:34:15Z</time>
      </trkpt>
      <trkpt lat="36.722090" lon="-118.970690">
        <ele>1930.750</ele>
        <time>2018-12-29T16:34:35Z</time>
      </trkpt>
      <trkpt lat="36.722160" lon="-118.970680">
        <ele>1931.269</ele>
        <time>2018-12-29T16:34:55Z</time>
      </trkpt>
      <trkpt lat="36.722300" lon="-118.970670">
        <ele>1932.337</ele>
        <time>2018-12-29T16:35:15Z</time>
      </trkpt>
      <trkpt lat="36.722370" lon="-118.970660">
        <ele>1932.949</ele>
        <time>2018-12-29T16:35:35Z</time>
      </trkpt>
      <trkpt lat="36.722430" lon="-118.970640">
        <ele>1933.613</ele>
        <time>2018-12-29T16:35:55Z</time>
      </trkpt>
      <trkpt lat="36.722510" lon="-118.970620">
        <ele>1934.308</ele>
        <time>2018-12-29T16:36:15Z</time>
      </trkpt>
      <trkpt lat="36.722590" lon="-118.970580">
        <ele>1935.476</ele>
        <time>2018-12-29T16:36:35Z</time>
      </trkpt>
      <trkpt lat="36.722680" lon="-118.970530">
        <ele>1936.984</ele>
        <time>2018-12-29T16:36:55Z</time>
      </trkpt>
      <trkpt lat="36.722750" lon="-118.970490">
        <ele>1938.079</ele>
        <time>2018-12-29T16:37:15Z</time>
      </trkpt>
      <trkpt lat="36.722820" lon="-118.970440">
        <ele>1938.839</ele>
        <time>2018-12-29T16:37:35Z</time>
      </trkpt>
      <trkpt lat="36.722890" lon="-118.970380">
        <ele>1939.353</ele>
        <time>2018-12-29T16:37:55Z</time>
      </trkpt>
      <trkpt lat="36.722940" lon="-118.970330">
        <ele>1939.753</ele>
        <time>2018-12-29T16:38:15Z</time>
      </trkpt>
      <trkpt lat="36.723020" lon="-118.970250">
        <ele>1940.449</ele>
        <time>2018-12-29T16:38:35Z</time>
      </trkpt>
      <trkpt lat="36.723060" lon="-118.970200">
        <ele>1940.798</ele>
        <time>2018-12-29T16:38:55Z</time>
      </trkpt>
      <trkpt lat="36.723120" lon="-118.970120">
        <ele>1941.085</ele>
        <time>2018-12-29T16:39:15Z</time>
      </trkpt>
      <trkpt lat="36.723180" lon="-118.970030">
        <ele>1941.289</ele>
        <time>2018-12-29T16:39:35Z</time>
      </trkpt>
      <trkpt lat="36.723230" lon="-118.969940">
        <ele>1941.017</ele>
        <time>2018-12-29T16:39:55Z</time>
      </trkpt>
      <trkpt lat="36.723270" lon="-118.969860">
        <ele>1940.908</ele>
        <time>2018-12-29T16:40:15Z</time>
      </trkpt>
      <trkpt lat="36.723290" lon="-118.969800">
        <ele>1940.891</ele>
        <time>2018-12-29T16:40:35Z</time>
      </trkpt>
      <trkpt lat="36.723340" lon="-118.969690">
        <ele>1940.749</ele>
        <time>2018-12-29T16:40:55Z</time>
      </trkpt>
      <trkpt lat="36.723370" lon="-118.969580">
        <ele>1940.874</ele>
        <time>2018-12-29T16:41:15Z</time>
      </trkpt>
      <trkpt lat="36.723390" lon="-118.969480">
        <ele>1941.044</ele>
        <time>2018-12-29T16:41:35Z</time>
      </trkpt>
      <trkpt lat="36.723420" lon="-118.969360">
        <ele>1941.218</ele>
        <time>2018-12-29T16:41:55Z</time>
      </trkpt>
      <trkpt lat="36.723430" lon="-118.969240">
        <ele>1941.498</ele>
        <time>2018-12-29T16:42:15Z</time>
      </trkpt>
      <trkpt lat="36.723440" lon="-118.969120">
        <ele>1941.544</ele>
        <time>2018-12-29T16:42:35Z</time>
      </trkpt>
      <trkpt lat="36.723440" lon="-118.968970">
        <ele>1941.553</ele>
        <time>2018-12-29T16:42:55Z</time>
      </trkpt>
      <trkpt lat="36.723420" lon="-118.968810">
        <ele>1941.781</ele>
        <time>2018-12-29T16:43:15Z</time>
      </trkpt>
      <trkpt lat="36.723390" lon="-118.968630">
        <ele>1941.861</ele>
        <time>2018-12-29T16:43:35Z</time>
      </trkpt>
      <trkpt lat="36.723350" lon="-118.968480">
        <ele>1942.017</ele>
        <time>2018-12-29T16:43:55Z</time>
      </trkpt>
      <trkpt lat="36.723320" lon="-118.968400">
        <ele>1942.308</ele>
        <time>2018-12-29T16:44:15Z</time>
      </trkpt>
      <trkpt lat="36.723310" lon="-118.968370">
        <ele>1942.461</ele>
        <time>2018-12-29T16:44:35Z</time>
      </trkpt>
      <trkpt lat="36.723290" lon="-118.968310">
        <ele>1942.759</ele>
        <time>2018-12-29T16:44:55Z</time>
      </trkpt>
      <trkpt lat="36.723260" lon="-118.968250">
        <ele>1943.024</ele>
        <time>2018-12-29T16:45:15Z</time>
      </trkpt>
      <trkpt lat="36.723190" lon="-118.968110">
        <ele>1944.234</ele>
        <time>2018-12-29T16:45:35Z</time>
      </trkpt>
      <trkpt lat="36.723150" lon="-118.968050">
        <ele>1944.898</ele>
        <time>2018-12-29T16:45:55Z</time>
      </trkpt>
      <trkpt lat="36.723100" lon="-118.967980">
        <ele>1945.478</ele>
        <time>2018-12-29T16:46:15Z</time>
      </trkpt>
      <trkpt lat="36.723000" lon="-118.967830">
        <ele>1946.854</ele>
        <time>2018-12-29T16:46:35Z</time>
      </trkpt>
      <trkpt lat="36.722920" lon="-118.967700">
        <ele>1947.973</ele>
        <time>2018-12-29T16:46:55Z</time>
      </trkpt>
      <trkpt lat="36.722850" lon="-118.967590">
        <ele>1948.853</ele>
        <time>2018-12-29T16:47:15Z</time>
      </trkpt>
      <trkpt lat="36.722760" lon="-118.967460">
        <ele>1949.804</ele>
        <time>2018-12-29T16:47:35Z</time>
      </trkpt>
      <trkpt lat="36.722700" lon="-118.967350">
        <ele>1951.014</ele>
        <time>2018-12-29T16:47:55Z</time>
      </trkpt>
      <trkpt lat="36.722640" lon="-118.967250">
        <ele>1954.508</ele>
        <time>2018-12-29T16:48:15Z</time>
      </trkpt>
      <trkpt lat="36.722590" lon="-118.967110">
        <ele>1958.868</ele>
        <time>2018-12-29T16:48:35Z</time>
      </trkpt>
      <trkpt lat="36.722550" lon="-118.966990">
        <ele>1960.066</ele>
        <time>2018-12-29T16:48:55Z</time>
      </trkpt>
      <trkpt lat="36.722520" lon="-118.966850">
        <ele>1961.291</ele>
        <time>2018-12-29T16:49:15Z</time>
      </trkpt>
      <trkpt lat="36.722520" lon="-118.966720">
        <ele>1961.731</ele>
        <time>2018-12-29T16:49:35Z</time>
      </trkpt>
      <trkpt lat="36.722510" lon="-118.966620">
        <ele>1961.425</ele>
        <time>2018-12-29T16:49:55Z</time>
      </trkpt>
      <trkpt lat="36.722520" lon="-118.966510">
        <ele>1961.545</ele>
        <time>2018-12-29T16:50:15Z</time>
      </trkpt>
      <trkpt lat="36.722530" lon="-118.966380">
        <ele>1961.171</ele>
        <time>2018-12-29T16:50:35Z</time>
      </trkpt>
      <trkpt lat="36.722560" lon="-118.966230">
        <ele>1961.120</ele>
        <time>2018-12-29T16:50:55Z</time>
      </trkpt>
      <trkpt lat="36.722580" lon="-118.966100">
        <ele>1960.948</ele>
        <time>2018-12-29T16:51:15Z</time>
      </trkpt>
      <trkpt lat="36.722620" lon="-118.965920">
        <ele>1961.561</ele>
        <time>2018-12-29T16:51:35Z</time>
      </trkpt>
      <trkpt lat="36.722640" lon="-118.965810">
        <ele>1962.817</ele>
        <time>2018-12-29T16:51:55Z</time>
      </trkpt>
      <trkpt lat="36.722640" lon="-118.965800">
        <ele>1962.808</ele>
        <time>2018-12-29T16:52:15Z</time>
      </trkpt>
      <trkpt lat="36.722650" lon="-118.965680">
        <ele>1963.777</ele>
        <time>2018-12-29T16:52:35Z</time>
      </trkpt>
      <trkpt lat="36.722660" lon="-118.965510">
        <ele>1963.615</ele>
        <time>2018-12-29T16:52:55Z</time>
      </trkpt>
      <trkpt lat="36.722650" lon="-118.965390">
        <ele>1963.340</ele>
        <time>2018-12-29T16:53:15Z</time>
      </trkpt>
      <trkpt lat="36.722640" lon="-118.965290">
        <ele>1963.580</ele>
        <time>2018-12-29T16:53:35Z</time>
      </trkpt>
      <trkpt lat="36.722630" lon="-118.965230">
        <ele>1963.654</ele>
        <time>2018-12-29T16:53:55Z</time>
      </trkpt>
      <trkpt lat="36.722620" lon="-118.965160">
        <ele>1963.924</ele>
        <time>2018-12-29T16:54:15Z</time>
      </trkpt>
      <trkpt lat="36.722570" lon="-118.965010">
        <ele>1965.690</ele>
        <time>2018-12-29T16:54:35Z</time>
      </trkpt>
      <trkpt lat="36.722510" lon="-118.964840">
        <ele>1967.839</ele>
        <time>2018-12-29T16:54:55Z</time>
      </trkpt>
      <trkpt lat="36.722460" lon="-118.964700">
        <ele>1969.337</ele>
        <time>2018-12-29T16:55:15Z</time>
      </trkpt>
      <trkpt lat="36.722380" lon="-118.964470">
        <ele>1971.349</ele>
        <time>2018-12-29T16:55:35Z</time>
      </trkpt>
      <trkpt lat="36.722330" lon="-118.964320">
        <ele>1972.513</ele>
        <time>2018-12-29T16:55:55Z</time>
      </trkpt>
      <trkpt lat="36.722260" lon="-118.964030">
        <ele>1973.608</ele>
        <time>2018-12-29T16:56:15Z</time>
      </trkpt>
      <trkpt lat="36.722220" lon="-118.963850">
        <ele>1973.416</ele>
        <time>2018-12-29T16:56:35Z</time>
      </trkpt>
      <trkpt lat="36.722190" lon="-118.963580">
        <ele>1972.744</ele>
        <time>2018-12-29T16:56:55Z</time>
      </trkpt>
      <trkpt lat="36.722180" lon="-118.963440">
        <ele>1972.119</ele>
        <time>2018-12-29T16:57:15Z</time>
      </trkpt>
      <trkpt lat="36.722170" lon="-118.963220">
        <ele>1971.249</ele>
        <time>2018-12-29T16:57:35Z</time>
      </trkpt>
      <trkpt lat="36.722170" lon="-118.962980">
        <ele>1974.983</ele>
        <time>2018-12-29T16:57:55Z</time>
      </trkpt>
      <trkpt lat="36.722180" lon="-118.962830">
        <ele>1978.023</ele>
        <time>2018-12-29T16:58:15Z</time>
      </trkpt>
      <trkpt lat="36.722200" lon="-118.962620">
        <ele>1982.389</ele>
        <time>2018-12-29T16:58:35Z</time>
      </trkpt>
      <trkpt lat="36.722230" lon="-118.962410">
        <ele>1984.638</ele>
        <time>2018-12-29T16:58:55Z</time>
      </trkpt>
      <trkpt lat="36.722270" lon="-118.962220">
        <ele>1985.737</ele>
        <time>2018-12-29T16:59:15Z</time>
      </trkpt>
      <trkpt lat="36.722300" lon="-118.962110">
        <ele>1986.349</ele>
        <time>2018-12-29T16:59:35Z</time>
      </trkpt>
      <trkpt lat="36.722350" lon="-118.961950">
        <ele>1987.413</ele>
        <time>2018-12-29T16:59:55Z</time>
      </trkpt>
      <trkpt lat="36.722390" lon="-118.961810">
        <ele>1987.508</ele>
        <time>2018-12-29T17:00:15Z</time>
      </trkpt>
      <trkpt lat="36.722440" lon="-118.961680">
        <ele>1987.676</ele>
        <time>2018-12-29T17:00:35Z</time>
      </trkpt>
      <trkpt lat="36.722490" lon="-118.961550">
        <ele>1987.834</ele>
        <time>2018-12-29T17:00:55Z</time>
      </trkpt>
      <trkpt lat="36.722560" lon="-118.961400">
        <ele>1988.069</ele>
        <time>2018-12-29T17:01:15Z</time>
      </trkpt>
      <trkpt lat="36.722640" lon="-118.961230">
        <ele>1988.259</ele>
        <time>2018-12-29T17:01:35Z</time>
      </trkpt>
      <trkpt lat="36.722730" lon="-118.961050">
        <ele>1988.273</ele>
        <time>2018-12-29T17:01:55Z</time>
      </trkpt>
      <trkpt lat="36.722790" lon="-118.960920">
        <ele>1988.453</ele>
        <time>2018-12-29T17:02:15Z</time>
      </trkpt>
      <trkpt lat="36.722830" lon="-118.960830">
        <ele>1988.639</ele>
        <time>2018-12-29T17:02:35Z</time>
      </trkpt>
      <trkpt lat="36.722880" lon="-118.960690">
        <ele>1988.818</ele>
        <time>2018-12-29T17:02:55Z</time>
      </trkpt>
      <trkpt lat="36.722900" lon="-118.960630">
        <ele>1989.056</ele>
        <time>2018-12-29T17:03:15Z</time>
      </trkpt>
      <trkpt lat="36.722910" lon="-118.960560">
        <ele>1989.059</ele>
        <time>2018-12-29T17:03:35Z</time>
      </trkpt>
      <trkpt lat="36.722930" lon="-118.960490">
        <ele>1989.114</ele>
        <time>2018-12-29T17:03:55Z</time>
      </trkpt>
      <trkpt lat="36.722940" lon="-118.960430">
        <ele>1989.108</ele>
        <time>2018-12-29T17:04:15Z</time>
      </trkpt>
      <trkpt lat="36.722950" lon="-118.960340">
        <ele>1989.538</ele>
        <time>2018-12-29T17:04:35Z</time>
      </trkpt>
      <trkpt lat="36.722950" lon="-118.960230">
        <ele>1990.186</ele>
        <time>2018-12-29T17:04:55Z</time>
      </trkpt>
      <trkpt lat="36.722950" lon="-118.960120">
        <ele>1990.651</ele>
        <time>2018-12-29T17:05:15Z</time>
      </trkpt>
      <trkpt lat="36.722950" lon="-118.960010">
        <ele>1991.081</ele>
        <time>2018-12-29T17:05:35Z</time>
      </trkpt>
      <trkpt lat="36.722930" lon="-118.959910">
        <ele>1991.385</ele>
        <time>2018-12-29T17:05:55Z</time>
      </trkpt>
      <trkpt lat="36.722920" lon="-118.959840">
        <ele>1991.485</ele>
        <time>2018-12-29T17:06:15Z</time>
      </trkpt>
      <trkpt lat="36.722900" lon="-118.959780">
        <ele>1991.241</ele>
        <time>2018-12-29T17:06:35Z</time>
      </trkpt>
      <trkpt lat="36.722880" lon="-118.959690">
        <ele>1991.040</ele>
        <time>2018-12-29T17:06:55Z</time>
      </trkpt>
      <trkpt lat="36.722840" lon="-118.959570">
        <ele>1990.761</ele>
        <time>2018-12-29T17:07:15Z</time>
      </trkpt>
      <trkpt lat="36.722780" lon="-118.959410">
        <ele>1991.521</ele>
        <time>2018-12-29T17:07:35Z</time>
      </trkpt>
      <trkpt lat="36.722710" lon="-118.959240">
        <ele>1992.913</ele>
        <time>2018-12-29T17:07:55Z</time>
      </trkpt>
      <trkpt lat="36.722630" lon="-118.959050">
        <ele>1994.908</ele>
        <time>2018-12-29T17:08:15Z</time>
      </trkpt>
      <trkpt lat="36.722600" lon="-118.958970">
        <ele>1995.619</ele>
        <time>2018-12-29T17:08:35Z</time>
      </trkpt>
      <trkpt lat="36.722580" lon="-118.958900">
        <ele>1996.177</ele>
        <time>2018-12-29T17:08:55Z</time>
      </trkpt>
      <trkpt lat="36.722550" lon="-118.958810">
        <ele>1996.762</ele>
        <time>2018-12-29T17:09:15Z</time>
      </trkpt>
      <trkpt lat="36.722540" lon="-118.958740">
        <ele>1997.262</ele>
        <time>2018-12-29T17:09:35Z</time>
      </trkpt>
      <trkpt lat="36.722520" lon="-118.958660">
        <ele>1997.416</ele>
        <time>2018-12-29T17:09:55Z</time>
      </trkpt>
      <trkpt lat="36.722520" lon="-118.958570">
        <ele>1998.016</ele>
        <time>2018-12-29T17:10:15Z</time>
      </trkpt>
      <trkpt lat="36.722510" lon="-118.958470">
        <ele>1998.412</ele>
        <time>2018-12-29T17:10:35Z</time>
      </trkpt>
      <trkpt lat="36.722510" lon="-118.958370">
        <ele>1998.931</ele>
        <time>2018-12-29T17:10:55Z</time>
      </trkpt>
      <trkpt lat="36.722520" lon="-118.958260">
        <ele>1999.748</ele>
        <time>2018-12-29T17:11:15Z</time>
      </trkpt>
      <trkpt lat="36.722550" lon="-118.958150">
        <ele>2000.861</ele>
        <time>2018-12-29T17:11:35Z</time>
      </trkpt>
      <trkpt lat="36.722580" lon="-118.958040">
        <ele>2001.317</ele>
        <time>2018-12-29T17:11:55Z</time>
      </trkpt>
      <trkpt lat="36.722600" lon="-118.957970">
        <ele>2001.608</ele>
        <time>2018-12-29T17:12:15Z</time>
      </trkpt>
      <trkpt lat="36.722630" lon="-118.957900">
        <ele>2002.157</ele>
        <time>2018-12-29T17:12:35Z</time>
      </trkpt>
      <trkpt lat="36.722680" lon="-118.957800">
        <ele>2003.765</ele>
        <time>2018-12-29T17:12:55Z</time>
      </trkpt>
      <trkpt lat="36.722760" lon="-118.957690">
        <ele>2005.510</ele>
        <time>2018-12-29T17:13:15Z</time>
      </trkpt>
      <trkpt lat="36.722820" lon="-118.957610">
        <ele>2006.010</ele>
        <time>2018-12-29T17:13:35Z</time>
      </trkpt>
      <trkpt lat="36.722900" lon="-118.957500">
        <ele>2006.254</ele>
        <time>2018-12-29T17:13:55Z</time>
      </trkpt>
      <trkpt lat="36.723030" lon="-118.957340">
        <ele>2006.964</ele>
        <time>2018-12-29T17:14:15Z</time>
      </trkpt>
      <trkpt lat="36.723160" lon="-118.957190">
        <ele>2007.740</ele>
        <time>2018-12-29T17:14:35Z</time>
      </trkpt>
      <trkpt lat="36.723260" lon="-118.957080">
        <ele>2009.039</ele>
        <time>2018-12-29T17:14:55Z</time>
      </trkpt>
      <trkpt lat="36.723380" lon="-118.956930">
        <ele>2010.219</ele>
        <time>2018-12-29T17:15:15Z</time>
      </trkpt>
      <trkpt lat="36.723480" lon="-118.956820">
        <ele>2011.909</ele>
        <time>2018-12-29T17:15:35Z</time>
      </trkpt>
      <trkpt lat="36.723600" lon="-118.956680">
        <ele>2014.119</ele>
        <time>2018-12-29T17:15:55Z</time>
      </trkpt>
      <trkpt lat="36.723700" lon="-118.956550">
        <ele>2015.308</ele>
        <time>2018-12-29T17:16:15Z</time>
      </trkpt>
      <trkpt lat="36.723740" lon="-118.956500">
        <ele>2016.194</ele>
        <time>2018-12-29T17:16:35Z</time>
      </trkpt>
      <trkpt lat="36.723800" lon="-118.956410">
        <ele>2017.532</ele>
        <time>2018-12-29T17:16:55Z</time>
      </trkpt>
      <trkpt lat="36.723830" lon="-118.956350">
        <ele>2018.187</ele>
        <time>2018-12-29T17:17:15Z</time>
      </trkpt>
      <trkpt lat="36.723870" lon="-118.956260">
        <ele>2018.557</ele>
        <time>2018-12-29T17:17:35Z</time>
      </trkpt>
      <trkpt lat="36.723900" lon="-118.956200">
        <ele>2018.651</ele>
        <time>2018-12-29T17:17:55Z</time>
      </trkpt>
      <trkpt lat="36.723920" lon="-118.956140">
        <ele>2018.451</ele>
        <time>2018-12-29T17:18:15Z</time>
      </trkpt>
      <trkpt lat="36.723960" lon="-118.956030">
        <ele>2018.047</ele>
        <time>2018-12-29T17:18:35Z</time>
      </trkpt>
      <trkpt lat="36.723990" lon="-118.955930">
        <ele>2017.576</ele>
        <time>2018-12-29T17:18:55Z</time>
      </trkpt>
      <trkpt lat="36.724020" lon="-118.955820">
        <ele>2017.315</ele>
        <time>2018-12-29T17:19:15Z</time>
      </trkpt>
      <trkpt lat="36.724060" lon="-118.955700">
        <ele>2017.165</ele>
        <time>2018-12-29T17:19:35Z</time>
      </trkpt>
      <trkpt lat="36.724080" lon="-118.955640">
        <ele>2017.011</ele>
        <time>2018-12-29T17:19:55Z</time>
      </trkpt>
      <trkpt lat="36.724100" lon="-118.955590">
        <ele>2016.908</ele>
        <time>2018-12-29T17:20:15Z</time>
      </trkpt>
      <trkpt lat="36.724170" lon="-118.955470">
        <ele>2016.474</ele>
        <time>2018-12-29T17:20:35Z</time>
      </trkpt>
      <trkpt lat="36.724170" lon="-118.955474">
        <ele>2016.482</ele>
        <time>2018-12-29T17:20:55Z</time>
      </trkpt>
      <trkpt lat="36.724020" lon="-118.955320">
        <ele>2016.217</ele>
        <time>2018-12-29T17:21:15Z</time>
      </trkpt>
      <trkpt lat="36.724000" lon="-118.955300">
        <ele>2016.037</ele>
        <time>2018-12-29T17:21:35Z</time>
      </trkpt>
      <trkpt lat="36.723950" lon="-118.955260">
        <ele>2015.631</ele>
        <time>2018-12-29T17:21:55Z</time>
      </trkpt>
      <trkpt lat="36.723890" lon="-118.955210">
        <ele>2015.271</ele>
        <time>2018-12-29T17:22:15Z</time>
      </trkpt>
      <trkpt lat="36.723830" lon="-118.955160">
        <ele>2014.927</ele>
        <time>2018-12-29T17:22:35Z</time>
      </trkpt>
      <trkpt lat="36.723780" lon="-118.955130">
        <ele>2014.856</ele>
        <time>2018-12-29T17:22:55Z</time>
      </trkpt>
      <trkpt lat="36.723700" lon="-118.955080">
        <ele>2014.455</ele>
        <time>2018-12-29T17:23:15Z</time>
      </trkpt>
      <trkpt lat="36.723610" lon="-118.955030">
        <ele>2013.707</ele>
        <time>2018-12-29T17:23:35Z</time>
      </trkpt>
      <trkpt lat="36.723460" lon="-118.954940">
        <ele>2012.117</ele>
        <time>2018-12-29T17:23:55Z</time>
      </trkpt>
      <trkpt lat="36.723380" lon="-118.954890">
        <ele>2010.008</ele>
        <time>2018-12-29T17:24:15Z</time>
      </trkpt>
      <trkpt lat="36.723250" lon="-118.954810">
        <ele>2007.538</ele>
        <time>2018-12-29T17:24:35Z</time>
      </trkpt>
      <trkpt lat="36.723160" lon="-118.954750">
        <ele>2006.786</ele>
        <time>2018-12-29T17:24:55Z</time>
      </trkpt>
      <trkpt lat="36.723060" lon="-118.954690">
        <ele>2006.011</ele>
        <time>2018-12-29T17:25:15Z</time>
      </trkpt>
      <trkpt lat="36.723020" lon="-118.954670">
        <ele>2005.781</ele>
        <time>2018-12-29T17:25:35Z</time>
      </trkpt>
      <trkpt lat="36.722830" lon="-118.954570">
        <ele>2004.675</ele>
        <time>2018-12-29T17:25:55Z</time>
      </trkpt>
      <trkpt lat="36.722700" lon="-118.954500">
        <ele>2004.195</ele>
        <time>2018-12-29T17:26:15Z</time>
      </trkpt>
      <trkpt lat="36.722630" lon="-118.954470">
        <ele>2003.751</ele>
        <time>2018-12-29T17:26:35Z</time>
      </trkpt>
      <trkpt lat="36.722530" lon="-118.954420">
        <ele>2003.670</ele>
        <time>2018-12-29T17:26:55Z</time>
      </trkpt>
      <trkpt lat="36.722410" lon="-118.954380">
        <ele>2003.458</ele>
        <time>2018-12-29T17:27:15Z</time>
      </trkpt>
      <trkpt lat="36.722300" lon="-118.954340">
        <ele>2003.452</ele>
        <time>2018-12-29T17:27:35Z</time>
      </trkpt>
      <trkpt lat="36.722190" lon="-118.954310">
        <ele>2003.417</ele>
        <time>2018-12-29T17:27:55Z</time>
      </trkpt>
      <trkpt lat="36.722060" lon="-118.954270">
        <ele>2003.608</ele>
        <time>2018-12-29T17:28:15Z</time>
      </trkpt>
      <trkpt lat="36.721930" lon="-118.954250">
        <ele>2003.778</ele>
        <time>2018-12-29T17:28:35Z</time>
      </trkpt>
      <trkpt lat="36.721800" lon="-118.954230">
        <ele>2003.816</ele>
        <time>2018-12-29T17:28:55Z</time>
      </trkpt>
      <trkpt lat="36.721670" lon="-118.954210">
        <ele>2004.171</ele>
        <time>2018-12-29T17:29:15Z</time>
      </trkpt>
      <trkpt lat="36.721530" lon="-118.954200">
        <ele>2004.351</ele>
        <time>2018-12-29T17:29:35Z</time>
      </trkpt>
      <trkpt lat="36.721420" lon="-118.954210">
        <ele>2004.545</ele>
        <time>2018-12-29T17:29:55Z</time>
      </trkpt>
      <trkpt lat="36.721290" lon="-118.954210">
        <ele>2004.955</ele>
        <time>2018-12-29T17:30:15Z</time>
      </trkpt>
      <trkpt lat="36.721170" lon="-118.954220">
        <ele>2005.391</ele>
        <time>2018-12-29T17:30:35Z</time>
      </trkpt>
      <trkpt lat="36.721070" lon="-118.954230">
        <ele>2005.860</ele>
        <time>2018-12-29T17:30:55Z</time>
      </trkpt>
      <trkpt lat="36.720950" lon="-118.954250">
        <ele>2006.246</ele>
        <time>2018-12-29T17:31:15Z</time>
      </trkpt>
      <trkpt lat="36.720830" lon="-118.954280">
        <ele>2006.388</ele>
        <time>2018-12-29T17:31:35Z</time>
      </trkpt>
      <trkpt lat="36.720690" lon="-118.954320">
        <ele>2006.516</ele>
        <time>2018-12-29T17:31:55Z</time>
      </trkpt>
      <trkpt lat="36.720550" lon="-118.954350">
        <ele>2006.208</ele>
        <time>2018-12-29T17:32:15Z</time>
      </trkpt>
      <trkpt lat="36.720470" lon="-118.954380">
        <ele>2005.937</ele>
        <time>2018-12-29T17:32:35Z</time>
      </trkpt>
      <trkpt lat="36.720280" lon="-118.954450">
        <ele>2004.795</ele>
        <time>2018-12-29T17:32:55Z</time>
      </trkpt>
      <trkpt lat="36.720210" lon="-118.954480">
        <ele>2004.170</ele>
        <time>2018-12-29T17:33:15Z</time>
      </trkpt>
      <trkpt lat="36.720080" lon="-118.954550">
        <ele>2003.070</ele>
        <time>2018-12-29T17:33:35Z</time>
      </trkpt>
      <trkpt lat="36.719950" lon="-118.954610">
        <ele>2002.534</ele>
        <time>2018-12-29T17:33:55Z</time>
      </trkpt>
      <trkpt lat="36.719870" lon="-118.954670">
        <ele>2001.954</ele>
        <time>2018-12-29T17:34:15Z</time>
      </trkpt>
      <trkpt lat="36.719710" lon="-118.954760">
        <ele>2001.970</ele>
        <time>2018-12-29T17:34:35Z</time>
      </trkpt>
      <trkpt lat="36.719570" lon="-118.954860">
        <ele>2001.759</ele>
        <time>2018-12-29T17:34:55Z</time>
      </trkpt>
      <trkpt lat="36.719430" lon="-118.954970">
        <ele>2000.978</ele>
        <time>2018-12-29T17:35:15Z</time>
      </trkpt>
      <trkpt lat="36.719360" lon="-118.955020">
        <ele>2000.933</ele>
        <time>2018-12-29T17:35:35Z</time>
      </trkpt>
      <trkpt lat="36.719260" lon="-118.955090">
        <ele>2001.126</ele>
        <time>2018-12-29T17:35:55Z</time>
      </trkpt>
      <trkpt lat="36.719200" lon="-118.955120">
        <ele>2001.208</ele>
        <time>2018-12-29T17:36:15Z</time>
      </trkpt>
      <trkpt lat="36.719130" lon="-118.955150">
        <ele>2001.050</ele>
        <time>2018-12-29T17:36:35Z</time>
      </trkpt>
      <trkpt lat="36.719060" lon="-118.955170">
        <ele>2000.578</ele>
        <time>2018-12-29T17:36:55Z</time>
      </trkpt>
      <trkpt lat="36.719010" lon="-118.955180">
        <ele>2000.323</ele>
        <time>2018-12-29T17:37:15Z</time>
      </trkpt>
      <trkpt lat="36.718960" lon="-118.955180">
        <ele>2000.453</ele>
        <time>2018-12-29T17:37:35Z</time>
      </trkpt>
      <trkpt lat="36.718890" lon="-118.955180">
        <ele>2000.687</ele>
        <time>2018-12-29T17:37:55Z</time>
      </trkpt>
      <trkpt lat="36.718770" lon="-118.955160">
        <ele>2001.867</ele>
        <time>2018-12-29T17:38:15Z</time>
      </trkpt>
      <trkpt lat="36.718690" lon="-118.955140">
        <ele>2002.313</ele>
        <time>2018-12-29T17:38:35Z</time>
      </trkpt>
      <trkpt lat="36.718640" lon="-118.955120">
        <ele>2002.432</ele>
        <time>2018-12-29T17:38:55Z</time>
      </trkpt>
      <trkpt lat="36.718570" lon="-118.955080">
        <ele>2002.985</ele>
        <time>2018-12-29T17:39:15Z</time>
      </trkpt>
      <trkpt lat="36.718510" lon="-118.955050">
        <ele>2003.389</ele>
        <time>2018-12-29T17:39:35Z</time>
      </trkpt>
      <trkpt lat="36.718460" lon="-118.955010">
        <ele>2004.217</ele>
        <time>2018-12-29T17:39:55Z</time>
      </trkpt>
      <trkpt lat="36.718390" lon="-118.954950">
        <ele>2006.008</ele>
        <time>2018-12-29T17:40:15Z</time>
      </trkpt>
      <trkpt lat="36.718320" lon="-118.954870">
        <ele>2008.311</ele>
        <time>2018-12-29T17:40:35Z</time>
      </trkpt>
      <trkpt lat="36.718270" lon="-118.954790">
        <ele>2009.889</ele>
        <time>2018-12-29T17:40:55Z</time>
      </trkpt>
      <trkpt lat="36.718220" lon="-118.954710">
        <ele>2010.884</ele>
        <time>2018-12-29T17:41:15Z</time>
      </trkpt>
      <trkpt lat="36.718190" lon="-118.954650">
        <ele>2011.584</ele>
        <time>2018-12-29T17:41:35Z</time>
      </trkpt>
      <trkpt lat="36.718160" lon="-118.954580">
        <ele>2012.878</ele>
        <time>2018-12-29T17:41:55Z</time>
      </trkpt>
      <trkpt lat="36.718140" lon="-118.954510">
        <ele>2014.028</ele>
        <time>2018-12-29T17:42:15Z</time>
      </trkpt>
      <trkpt lat="36.718130" lon="-118.954480">
        <ele>2014.564</ele>
        <time>2018-12-29T17:42:35Z</time>
      </trkpt>
      <trkpt lat="36.718120" lon="-118.954440">
        <ele>2015.033</ele>
        <time>2018-12-29T17:42:55Z</time>
      </trkpt>
      <trkpt lat="36.718110" lon="-118.954360">
        <ele>2015.918</ele>
        <time>2018-12-29T17:43:15Z</time>
      </trkpt>
      <trkpt lat="36.718100" lon="-118.954270">
        <ele>2015.998</ele>
        <time>2018-12-29T17:43:35Z</time>
      </trkpt>
      <trkpt lat="36.718100" lon="-118.954180">
        <ele>2014.417</ele>
        <time>2018-12-29T17:43:55Z</time>
      </trkpt>
      <trkpt lat="36.718100" lon="-118.954090">
        <ele>2012.908</ele>
        <time>2018-12-29T17:44:15Z</time>
      </trkpt>
      <trkpt lat="36.718120" lon="-118.953950">
        <ele>2011.974</ele>
        <time>2018-12-29T17:44:35Z</time>
      </trkpt>
      <trkpt lat="36.718140" lon="-118.953870">
        <ele>2012.062</ele>
        <time>2018-12-29T17:44:55Z</time>
      </trkpt>
      <trkpt lat="36.718150" lon="-118.953780">
        <ele>2011.867</ele>
        <time>2018-12-29T17:45:15Z</time>
      </trkpt>
      <trkpt lat="36.718180" lon="-118.953630">
        <ele>2012.057</ele>
        <time>2018-12-29T17:45:35Z</time>
      </trkpt>
      <trkpt lat="36.718190" lon="-118.953530">
        <ele>2011.961</ele>
        <time>2018-12-29T17:45:55Z</time>
      </trkpt>
      <trkpt lat="36.718200" lon="-118.953410">
        <ele>2011.991</ele>
        <time>2018-12-29T17:46:15Z</time>
      </trkpt>
      <trkpt lat="36.718210" lon="-118.953310">
        <ele>2012.147</ele>
        <time>2018-12-29T17:46:35Z</time>
      </trkpt>
      <trkpt lat="36.718200" lon="-118.953190">
        <ele>2011.356</ele>
        <time>2018-12-29T17:46:55Z</time>
      </trkpt>
      <trkpt lat="36.718200" lon="-118.953110">
        <ele>2011.727</ele>
        <time>2018-12-29T17:47:15Z</time>
      </trkpt>
      <trkpt lat="36.718190" lon="-118.953020">
        <ele>2011.768</ele>
        <time>2018-12-29T17:47:35Z</time>
      </trkpt>
      <trkpt lat="36.718180" lon="-118.952960">
        <ele>2011.714</ele>
        <time>2018-12-29T17:47:55Z</time>
      </trkpt>
      <trkpt lat="36.718170" lon="-118.952890">
        <ele>2011.708</ele>
        <time>2018-12-29T17:48:15Z</time>
      </trkpt>
      <trkpt lat="36.718130" lon="-118.952720">
        <ele>2011.445</ele>
        <time>2018-12-29T17:48:35Z</time>
      </trkpt>
      <trkpt lat="36.718110" lon="-118.952640">
        <ele>2011.253</ele>
        <time>2018-12-29T17:48:55Z</time>
      </trkpt>
      <trkpt lat="36.718080" lon="-118.952560">
        <ele>2010.858</ele>
        <time>2018-12-29T17:49:15Z</time>
      </trkpt>
      <trkpt lat="36.718050" lon="-118.952430">
        <ele>2010.978</ele>
        <time>2018-12-29T17:49:35Z</time>
      </trkpt>
      <trkpt lat="36.718010" lon="-118.952310">
        <ele>2011.022</ele>
        <time>2018-12-29T17:49:55Z</time>
      </trkpt>
      <trkpt lat="36.717980" lon="-118.952170">
        <ele>2012.562</ele>
        <time>2018-12-29T17:50:15Z</time>
      </trkpt>
      <trkpt lat="36.717940" lon="-118.952040">
        <ele>2013.538</ele>
        <time>2018-12-29T17:50:35Z</time>
      </trkpt>
      <trkpt lat="36.717920" lon="-118.951910">
        <ele>2015.057</ele>
        <time>2018-12-29T17:50:55Z</time>
      </trkpt>
      <trkpt lat="36.717910" lon="-118.951820">
        <ele>2016.181</ele>
        <time>2018-12-29T17:51:15Z</time>
      </trkpt>
      <trkpt lat="36.717900" lon="-118.951690">
        <ele>2016.361</ele>
        <time>2018-12-29T17:51:35Z</time>
      </trkpt>
      <trkpt lat="36.717890" lon="-118.951530">
        <ele>2016.417</ele>
        <time>2018-12-29T17:51:55Z</time>
      </trkpt>
      <trkpt lat="36.717890" lon="-118.951390">
        <ele>2016.508</ele>
        <time>2018-12-29T17:52:15Z</time>
      </trkpt>
      <trkpt lat="36.717890" lon="-118.951270">
        <ele>2016.611</ele>
        <time>2018-12-29T17:52:35Z</time>
      </trkpt>
      <trkpt lat="36.717900" lon="-118.951160">
        <ele>2016.659</ele>
        <time>2018-12-29T17:52:55Z</time>
      </trkpt>
      <trkpt lat="36.717910" lon="-118.951030">
        <ele>2016.684</ele>
        <time>2018-12-29T17:53:15Z</time>
      </trkpt>
      <trkpt lat="36.717920" lon="-118.950970">
        <ele>2016.854</ele>
        <time>2018-12-29T17:53:35Z</time>
      </trkpt>
      <trkpt lat="36.717940" lon="-118.950900">
        <ele>2017.078</ele>
        <time>2018-12-29T17:53:55Z</time>
      </trkpt>
      <trkpt lat="36.717980" lon="-118.950700">
        <ele>2017.138</ele>
        <time>2018-12-29T17:54:15Z</time>
      </trkpt>
      <trkpt lat="36.718010" lon="-118.950590">
        <ele>2016.974</ele>
        <time>2018-12-29T17:54:35Z</time>
      </trkpt>
      <trkpt lat="36.718060" lon="-118.950440">
        <ele>2016.833</ele>
        <time>2018-12-29T17:54:55Z</time>
      </trkpt>
      <trkpt lat="36.718060" lon="-118.950430">
        <ele>2016.711</ele>
        <time>2018-12-29T17:55:15Z</time>
      </trkpt>
      <trkpt lat="36.718110" lon="-118.950310">
        <ele>2016.621</ele>
        <time>2018-12-29T17:55:35Z</time>
      </trkpt>
      <trkpt lat="36.718170" lon="-118.950150">
        <ele>2016.603</ele>
        <time>2018-12-29T17:55:55Z</time>
      </trkpt>
      <trkpt lat="36.718240" lon="-118.950000">
        <ele>2017.108</ele>
        <time>2018-12-29T17:56:15Z</time>
      </trkpt>
      <trkpt lat="36.718300" lon="-118.949870">
        <ele>2017.364</ele>
        <time>2018-12-29T17:56:35Z</time>
      </trkpt>
      <trkpt lat="36.718380" lon="-118.949690">
        <ele>2016.192</ele>
        <time>2018-12-29T17:56:55Z</time>
      </trkpt>
      <trkpt lat="36.718440" lon="-118.949560">
        <ele>2014.647</ele>
        <time>2018-12-29T17:57:15Z</time>
      </trkpt>
      <trkpt lat="36.718500" lon="-118.949430">
        <ele>2013.377</ele>
        <time>2018-12-29T17:57:35Z</time>
      </trkpt>
      <trkpt lat="36.718580" lon="-118.949250">
        <ele>2012.491</ele>
        <time>2018-12-29T17:57:55Z</time>
      </trkpt>
      <trkpt lat="36.718670" lon="-118.949040">
        <ele>2010.121</ele>
        <time>2018-12-29T17:58:15Z</time>
      </trkpt>
      <trkpt lat="36.718760" lon="-118.948850">
        <ele>2009.487</ele>
        <time>2018-12-29T17:58:35Z</time>
      </trkpt>
      <trkpt lat="36.718840" lon="-118.948680">
        <ele>2009.696</ele>
        <time>2018-12-29T17:58:55Z</time>
      </trkpt>
      <trkpt lat="36.718890" lon="-118.948560">
        <ele>2009.835</ele>
        <time>2018-12-29T17:59:15Z</time>
      </trkpt>
      <trkpt lat="36.718920" lon="-118.948460">
        <ele>2009.686</ele>
        <time>2018-12-29T17:59:35Z</time>
      </trkpt>
      <trkpt lat="36.718960" lon="-118.948380">
        <ele>2009.914</ele>
        <time>2018-12-29T17:59:55Z</time>
      </trkpt>
      <trkpt lat="36.718990" lon="-118.948260">
        <ele>2009.508</ele>
        <time>2018-12-29T18:00:15Z</time>
      </trkpt>
      <trkpt lat="36.719020" lon="-118.948170">
        <ele>2009.496</ele>
        <time>2018-12-29T18:00:35Z</time>
      </trkpt>
      <trkpt lat="36.719050" lon="-118.948070">
        <ele>2009.284</ele>
        <time>2018-12-29T18:00:55Z</time>
      </trkpt>
      <trkpt lat="36.719110" lon="-118.947840">
        <ele>2008.359</ele>
        <time>2018-12-29T18:01:15Z</time>
      </trkpt>
      <trkpt lat="36.719140" lon="-118.947670">
        <ele>2007.399</ele>
        <time>2018-12-29T18:01:35Z</time>
      </trkpt>
      <trkpt lat="36.719160" lon="-118.947520">
        <ele>2006.633</ele>
        <time>2018-12-29T18:01:55Z</time>
      </trkpt>
      <trkpt lat="36.719180" lon="-118.947390">
        <ele>2006.173</ele>
        <time>2018-12-29T18:02:15Z</time>
      </trkpt>
      <trkpt lat="36.719180" lon="-118.947280">
        <ele>2005.769</ele>
        <time>2018-12-29T18:02:35Z</time>
      </trkpt>
      <trkpt lat="36.719180" lon="-118.947220">
        <ele>2005.658</ele>
        <time>2018-12-29T18:02:55Z</time>
      </trkpt>
      <trkpt lat="36.719190" lon="-118.947180">
        <ele>2005.779</ele>
        <time>2018-12-29T18:03:15Z</time>
      </trkpt>
      <trkpt lat="36.719180" lon="-118.947100">
        <ele>2005.305</ele>
        <time>2018-12-29T18:03:35Z</time>
      </trkpt>
      <trkpt lat="36.719180" lon="-118.947030">
        <ele>2005.425</ele>
        <time>2018-12-29T18:03:55Z</time>
      </trkpt>
      <trkpt lat="36.719170" lon="-118.946970">
        <ele>2005.408</ele>
        <time>2018-12-29T18:04:15Z</time>
      </trkpt>
      <trkpt lat="36.719160" lon="-118.946900">
        <ele>2005.480</ele>
        <time>2018-12-29T18:04:35Z</time>
      </trkpt>
      <trkpt lat="36.719150" lon="-118.946810">
        <ele>2005.438</ele>
        <time>2018-12-29T18:04:55Z</time>
      </trkpt>
      <trkpt lat="36.719140" lon="-118.946720">
        <ele>2005.663</ele>
        <time>2018-12-29T18:05:15Z</time>
      </trkpt>
      <trkpt lat="36.719110" lon="-118.946610">
        <ele>2005.553</ele>
        <time>2018-12-29T18:05:35Z</time>
      </trkpt>
      <trkpt lat="36.719080" lon="-118.946450">
        <ele>2005.737</ele>
        <time>2018-12-29T18:05:55Z</time>
      </trkpt>
      <trkpt lat="36.719040" lon="-118.946290">
        <ele>2006.097</ele>
        <time>2018-12-29T18:06:15Z</time>
      </trkpt>
      <trkpt lat="36.718990" lon="-118.946060">
        <ele>2006.863</ele>
        <time>2018-12-29T18:06:35Z</time>
      </trkpt>
      <trkpt lat="36.718940" lon="-118.945810">
        <ele>2007.882</ele>
        <time>2018-12-29T18:06:55Z</time>
      </trkpt>
      <trkpt lat="36.718910" lon="-118.945680">
        <ele>2008.282</ele>
        <time>2018-12-29T18:07:15Z</time>
      </trkpt>
      <trkpt lat="36.718860" lon="-118.945450">
        <ele>2009.243</ele>
        <time>2018-12-29T18:07:35Z</time>
      </trkpt>
      <trkpt lat="36.718790" lon="-118.945190">
        <ele>2010.017</ele>
        <time>2018-12-29T18:07:55Z</time>
      </trkpt>
      <trkpt lat="36.718750" lon="-118.945030">
        <ele>2010.508</ele>
        <time>2018-12-29T18:08:15Z</time>
      </trkpt>
      <trkpt lat="36.718710" lon="-118.944900">
        <ele>2010.971</ele>
        <time>2018-12-29T18:08:35Z</time>
      </trkpt>
      <trkpt lat="36.718690" lon="-118.944830">
        <ele>2011.269</ele>
        <time>2018-12-29T18:08:55Z</time>
      </trkpt>
      <trkpt lat="36.718660" lon="-118.944760">
        <ele>2011.454</ele>
        <time>2018-12-29T18:09:15Z</time>
      </trkpt>
      <trkpt lat="36.718630" lon="-118.944690">
        <ele>2011.564</ele>
        <time>2018-12-29T18:09:35Z</time>
      </trkpt>
      <trkpt lat="36.718570" lon="-118.944570">
        <ele>2011.378</ele>
        <time>2018-12-29T18:09:55Z</time>
      </trkpt>
      <trkpt lat="36.718510" lon="-118.944480">
        <ele>2010.558</ele>
        <time>2018-12-29T18:10:15Z</time>
      </trkpt>
      <trkpt lat="36.718460" lon="-118.944390">
        <ele>2009.954</ele>
        <time>2018-12-29T18:10:35Z</time>
      </trkpt>
      <trkpt lat="36.718400" lon="-118.944320">
        <ele>2009.743</ele>
        <time>2018-12-29T18:10:55Z</time>
      </trkpt>
      <trkpt lat="36.718320" lon="-118.944230">
        <ele>2010.718</ele>
        <time>2018-12-29T18:11:15Z</time>
      </trkpt>
      <trkpt lat="36.718270" lon="-118.944180">
        <ele>2010.798</ele>
        <time>2018-12-29T18:11:35Z</time>
      </trkpt>
      <trkpt lat="36.718220" lon="-118.944120">
        <ele>2010.417</ele>
        <time>2018-12-29T18:11:55Z</time>
      </trkpt>
      <trkpt lat="36.718130" lon="-118.944040">
        <ele>2011.308</ele>
        <time>2018-12-29T18:12:15Z</time>
      </trkpt>
      <trkpt lat="36.718070" lon="-118.944000">
        <ele>2012.934</ele>
        <time>2018-12-29T18:12:35Z</time>
      </trkpt>
      <trkpt lat="36.718000" lon="-118.943920">
        <ele>2015.012</ele>
        <time>2018-12-29T18:12:55Z</time>
      </trkpt>
      <trkpt lat="36.717960" lon="-118.943870">
        <ele>2015.877</ele>
        <time>2018-12-29T18:13:15Z</time>
      </trkpt>
      <trkpt lat="36.717930" lon="-118.943830">
        <ele>2016.237</ele>
        <time>2018-12-29T18:13:35Z</time>
      </trkpt>
      <trkpt lat="36.717900" lon="-118.943780">
        <ele>2016.321</ele>
        <time>2018-12-29T18:13:55Z</time>
      </trkpt>
      <trkpt lat="36.717870" lon="-118.943720">
        <ele>2016.311</ele>
        <time>2018-12-29T18:14:15Z</time>
      </trkpt>
      <trkpt lat="36.717830" lon="-118.943640">
        <ele>2016.257</ele>
        <time>2018-12-29T18:14:35Z</time>
      </trkpt>
      <trkpt lat="36.717810" lon="-118.943550">
        <ele>2016.886</ele>
        <time>2018-12-29T18:14:55Z</time>
      </trkpt>
      <trkpt lat="36.717790" lon="-118.943470">
        <ele>2017.322</ele>
        <time>2018-12-29T18:15:15Z</time>
      </trkpt>
      <trkpt lat="36.717770" lon="-118.943350">
        <ele>2016.762</ele>
        <time>2018-12-29T18:15:35Z</time>
      </trkpt>
      <trkpt lat="36.717760" lon="-118.943240">
        <ele>2016.308</ele>
        <time>2018-12-29T18:15:55Z</time>
      </trkpt>
      <trkpt lat="36.717770" lon="-118.943160">
        <ele>2016.408</ele>
        <time>2018-12-29T18:16:15Z</time>
      </trkpt>
      <trkpt lat="36.717770" lon="-118.943040">
        <ele>2015.585</ele>
        <time>2018-12-29T18:16:35Z</time>
      </trkpt>
      <trkpt lat="36.717780" lon="-118.942970">
        <ele>2015.273</ele>
        <time>2018-12-29T18:16:55Z</time>
      </trkpt>
      <trkpt lat="36.717780" lon="-118.942930">
        <ele>2014.948</ele>
        <time>2018-12-29T18:17:15Z</time>
      </trkpt>
      <trkpt lat="36.717790" lon="-118.942880">
        <ele>2014.378</ele>
        <time>2018-12-29T18:17:35Z</time>
      </trkpt>
      <trkpt lat="36.717790" lon="-118.942840">
        <ele>2013.472</ele>
        <time>2018-12-29T18:17:55Z</time>
      </trkpt>
      <trkpt lat="36.717810" lon="-118.942770">
        <ele>2012.582</ele>
        <time>2018-12-29T18:18:15Z</time>
      </trkpt>
      <trkpt lat="36.717830" lon="-118.942650">
        <ele>2010.438</ele>
        <time>2018-12-29T18:18:35Z</time>
      </trkpt>
      <trkpt lat="36.717830" lon="-118.942620">
        <ele>2010.197</ele>
        <time>2018-12-29T18:18:55Z</time>
      </trkpt>
      <trkpt lat="36.717840" lon="-118.942590">
        <ele>2010.245</ele>
        <time>2018-12-29T18:19:15Z</time>
      </trkpt>
      <trkpt lat="36.717850" lon="-118.942510">
        <ele>2010.247</ele>
        <time>2018-12-29T18:19:35Z</time>
      </trkpt>
      <trkpt lat="36.717850" lon="-118.942450">
        <ele>2010.011</ele>
        <time>2018-12-29T18:19:55Z</time>
      </trkpt>
      <trkpt lat="36.717850" lon="-118.942370">
        <ele>2009.708</ele>
        <time>2018-12-29T18:20:15Z</time>
      </trkpt>
      <trkpt lat="36.717850" lon="-118.942290">
        <ele>2009.747</ele>
        <time>2018-12-29T18:20:35Z</time>
      </trkpt>
      <trkpt lat="36.717840" lon="-118.942210">
        <ele>2009.355</ele>
        <time>2018-12-29T18:20:55Z</time>
      </trkpt>
      <trkpt lat="36.717830" lon="-118.942120">
        <ele>2009.030</ele>
        <time>2018-12-29T18:21:15Z</time>
      </trkpt>
      <trkpt lat="36.717810" lon="-118.942050">
        <ele>2008.420</ele>
        <time>2018-12-29T18:21:35Z</time>
      </trkpt>
      <trkpt lat="36.717790" lon="-118.941970">
        <ele>2007.864</ele>
        <time>2018-12-29T18:21:55Z</time>
      </trkpt>
      <trkpt lat="36.717760" lon="-118.941900">
        <ele>2007.134</ele>
        <time>2018-12-29T18:22:15Z</time>
      </trkpt>
      <trkpt lat="36.717730" lon="-118.941850">
        <ele>2006.470</ele>
        <time>2018-12-29T18:22:35Z</time>
      </trkpt>
      <trkpt lat="36.717700" lon="-118.941790">
        <ele>2005.879</ele>
        <time>2018-12-29T18:22:55Z</time>
      </trkpt>
      <trkpt lat="36.717650" lon="-118.941720">
        <ele>2005.095</ele>
        <time>2018-12-29T18:23:15Z</time>
      </trkpt>
      <trkpt lat="36.717610" lon="-118.941660">
        <ele>2004.649</ele>
        <time>2018-12-29T18:23:35Z</time>
      </trkpt>
      <trkpt lat="36.717580" lon="-118.941620">
        <ele>2004.523</ele>
        <time>2018-12-29T18:23:55Z</time>
      </trkpt>
      <trkpt lat="36.717550" lon="-118.941590">
        <ele>2004.408</ele>
        <time>2018-12-29T18:24:15Z</time>
      </trkpt>
      <trkpt lat="36.717500" lon="-118.941540">
        <ele>2004.482</ele>
        <time>2018-12-29T18:24:35Z</time>
      </trkpt>
      <trkpt lat="36.717420" lon="-118.941480">
        <ele>2004.610</ele>
        <time>2018-12-29T18:24:55Z</time>
      </trkpt>
      <trkpt lat="36.717280" lon="-118.941410">
        <ele>2004.995</ele>
        <time>2018-12-29T18:25:15Z</time>
      </trkpt>
      <trkpt lat="36.717230" lon="-118.941400">
        <ele>2004.815</ele>
        <time>2018-12-29T18:25:35Z</time>
      </trkpt>
      <trkpt lat="36.717160" lon="-118.941390">
        <ele>2004.699</ele>
        <time>2018-12-29T18:25:55Z</time>
      </trkpt>
      <trkpt lat="36.717100" lon="-118.941380">
        <ele>2004.549</ele>
        <time>2018-12-29T18:26:15Z</time>
      </trkpt>
      <trkpt lat="36.717020" lon="-118.941380">
        <ele>2004.365</ele>
        <time>2018-12-29T18:26:35Z</time>
      </trkpt>
      <trkpt lat="36.716950" lon="-118.941380">
        <ele>2004.284</ele>
        <time>2018-12-29T18:26:55Z</time>
      </trkpt>
      <trkpt lat="36.716850" lon="-118.941380">
        <ele>2003.975</ele>
        <time>2018-12-29T18:27:15Z</time>
      </trkpt>
      <trkpt lat="36.716770" lon="-118.941390">
        <ele>2003.528</ele>
        <time>2018-12-29T18:27:35Z</time>
      </trkpt>
      <trkpt lat="36.716700" lon="-118.941390">
        <ele>2003.420</ele>
        <time>2018-12-29T18:27:55Z</time>
      </trkpt>
      <trkpt lat="36.716650" lon="-118.941390">
        <ele>2003.208</ele>
        <time>2018-12-29T18:28:15Z</time>
      </trkpt>
      <trkpt lat="36.716600" lon="-118.941390">
        <ele>2003.180</ele>
        <time>2018-12-29T18:28:35Z</time>
      </trkpt>
      <trkpt lat="36.716510" lon="-118.941370">
        <ele>2003.578</ele>
        <time>2018-12-29T18:28:55Z</time>
      </trkpt>
      <trkpt lat="36.716450" lon="-118.941350">
        <ele>2004.063</ele>
        <time>2018-12-29T18:29:15Z</time>
      </trkpt>
      <trkpt lat="36.716390" lon="-118.941320">
        <ele>2004.973</ele>
        <time>2018-12-29T18:29:35Z</time>
      </trkpt>
      <trkpt lat="36.716320" lon="-118.941270">
        <ele>2006.527</ele>
        <time>2018-12-29T18:29:55Z</time>
      </trkpt>
      <trkpt lat="36.716250" lon="-118.941220">
        <ele>2008.057</ele>
        <time>2018-12-29T18:30:15Z</time>
      </trkpt>
      <trkpt lat="36.716200" lon="-118.941170">
        <ele>2009.233</ele>
        <time>2018-12-29T18:30:35Z</time>
      </trkpt>
      <trkpt lat="36.716110" lon="-118.941060">
        <ele>2011.142</ele>
        <time>2018-12-29T18:30:55Z</time>
      </trkpt>
      <trkpt lat="36.716050" lon="-118.940980">
        <ele>2011.729</ele>
        <time>2018-12-29T18:31:15Z</time>
      </trkpt>
      <trkpt lat="36.716010" lon="-118.940890">
        <ele>2011.900</ele>
        <time>2018-12-29T18:31:35Z</time>
      </trkpt>
      <trkpt lat="36.715970" lon="-118.940800">
        <ele>2011.920</ele>
        <time>2018-12-29T18:31:55Z</time>
      </trkpt>
      <trkpt lat="36.715940" lon="-118.940710">
        <ele>2012.408</ele>
        <time>2018-12-29T18:32:15Z</time>
      </trkpt>
      <trkpt lat="36.715910" lon="-118.940620">
        <ele>2011.765</ele>
        <time>2018-12-29T18:32:35Z</time>
      </trkpt>
      <trkpt lat="36.715910" lon="-118.940590">
        <ele>2011.493</ele>
        <time>2018-12-29T18:32:55Z</time>
      </trkpt>
      <trkpt lat="36.715890" lon="-118.940500">
        <ele>2010.288</ele>
        <time>2018-12-29T18:33:15Z</time>
      </trkpt>
      <trkpt lat="36.715890" lon="-118.940400">
        <ele>2009.048</ele>
        <time>2018-12-29T18:33:35Z</time>
      </trkpt>
      <trkpt lat="36.715890" lon="-118.940260">
        <ele>2007.242</ele>
        <time>2018-12-29T18:33:55Z</time>
      </trkpt>
      <trkpt lat="36.715920" lon="-118.940090">
        <ele>2005.442</ele>
        <time>2018-12-29T18:34:15Z</time>
      </trkpt>
      <trkpt lat="36.715940" lon="-118.940010">
        <ele>2004.628</ele>
        <time>2018-12-29T18:34:35Z</time>
      </trkpt>
      <trkpt lat="36.715970" lon="-118.939920">
        <ele>2003.957</ele>
        <time>2018-12-29T18:34:55Z</time>
      </trkpt>
      <trkpt lat="36.715990" lon="-118.939870">
        <ele>2003.465</ele>
        <time>2018-12-29T18:35:15Z</time>
      </trkpt>
      <trkpt lat="36.716010" lon="-118.939820">
        <ele>2002.468</ele>
        <time>2018-12-29T18:35:35Z</time>
      </trkpt>
      <trkpt lat="36.716040" lon="-118.939780">
        <ele>2001.714</ele>
        <time>2018-12-29T18:35:55Z</time>
      </trkpt>
      <trkpt lat="36.716070" lon="-118.939740">
        <ele>2001.008</ele>
        <time>2018-12-29T18:36:15Z</time>
      </trkpt>
      <trkpt lat="36.716160" lon="-118.939630">
        <ele>1999.439</ele>
        <time>2018-12-29T18:36:35Z</time>
      </trkpt>
      <trkpt lat="36.716250" lon="-118.939520">
        <ele>1998.487</ele>
        <time>2018-12-29T18:36:55Z</time>
      </trkpt>
      <trkpt lat="36.716380" lon="-118.939380">
        <ele>1999.792</ele>
        <time>2018-12-29T18:37:15Z</time>
      </trkpt>
      <trkpt lat="36.716460" lon="-118.939300">
        <ele>2000.112</ele>
        <time>2018-12-29T18:37:35Z</time>
      </trkpt>
      <trkpt lat="36.716570" lon="-118.939170">
        <ele>2001.056</ele>
        <time>2018-12-29T18:37:55Z</time>
      </trkpt>
      <trkpt lat="36.716640" lon="-118.939070">
        <ele>2001.436</ele>
        <time>2018-12-29T18:38:15Z</time>
      </trkpt>
      <trkpt lat="36.716740" lon="-118.938940">
        <ele>2002.192</ele>
        <time>2018-12-29T18:38:35Z</time>
      </trkpt>
      <trkpt lat="36.716780" lon="-118.938890">
        <ele>2002.311</ele>
        <time>2018-12-29T18:38:55Z</time>
      </trkpt>
      <trkpt lat="36.716840" lon="-118.938800">
        <ele>2002.846</ele>
        <time>2018-12-29T18:39:15Z</time>
      </trkpt>
      <trkpt lat="36.716930" lon="-118.938640">
        <ele>2003.788</ele>
        <time>2018-12-29T18:39:35Z</time>
      </trkpt>
      <trkpt lat="36.716990" lon="-118.938550">
        <ele>2004.516</ele>
        <time>2018-12-29T18:39:55Z</time>
      </trkpt>
      <trkpt lat="36.717030" lon="-118.938460">
        <ele>2003.908</ele>
        <time>2018-12-29T18:40:15Z</time>
      </trkpt>
      <trkpt lat="36.717110" lon="-118.938300">
        <ele>2003.817</ele>
        <time>2018-12-29T18:40:35Z</time>
      </trkpt>
      <trkpt lat="36.717180" lon="-118.938170">
        <ele>2004.315</ele>
        <time>2018-12-29T18:40:55Z</time>
      </trkpt>
      <trkpt lat="36.717210" lon="-118.938100">
        <ele>2004.580</ele>
        <time>2018-12-29T18:41:15Z</time>
      </trkpt>
      <trkpt lat="36.717260" lon="-118.937970">
        <ele>2004.080</ele>
        <time>2018-12-29T18:41:35Z</time>
      </trkpt>
      <trkpt lat="36.717550" lon="-118.937250">
        <ele>2003.084</ele>
        <time>2018-12-29T18:41:55Z</time>
      </trkpt>
      <trkpt lat="36.717600" lon="-118.937150">
        <ele>2002.734</ele>
        <time>2018-12-29T18:42:15Z</time>
      </trkpt>
      <trkpt lat="36.717690" lon="-118.936910">
        <ele>2001.250</ele>
        <time>2018-12-29T18:42:35Z</time>
      </trkpt>
      <trkpt lat="36.717760" lon="-118.936750">
        <ele>2000.289</ele>
        <time>2018-12-29T18:42:55Z</time>
      </trkpt>
      <trkpt lat="36.717820" lon="-118.936650">
        <ele>1999.675</ele>
        <time>2018-12-29T18:43:15Z</time>
      </trkpt>
      <trkpt lat="36.717890" lon="-118.936540">
        <ele>1998.428</ele>
        <time>2018-12-29T18:43:35Z</time>
      </trkpt>
      <trkpt lat="36.717960" lon="-118.936460">
        <ele>1999.220</ele>
        <time>2018-12-29T18:43:55Z</time>
      </trkpt>
      <trkpt lat="36.718030" lon="-118.936380">
        <ele>2000.008</ele>
        <time>2018-12-29T18:44:15Z</time>
      </trkpt>
      <trkpt lat="36.718090" lon="-118.936310">
        <ele>2000.090</ele>
        <time>2018-12-29T18:44:35Z</time>
      </trkpt>
      <trkpt lat="36.718170" lon="-118.936220">
        <ele>1999.778</ele>
        <time>2018-12-29T18:44:55Z</time>
      </trkpt>
      <trkpt lat="36.718260" lon="-118.936120">
        <ele>2001.693</ele>
        <time>2018-12-29T18:45:15Z</time>
      </trkpt>
      <trkpt lat="36.718330" lon="-118.936020">
        <ele>2002.093</ele>
        <time>2018-12-29T18:45:35Z</time>
      </trkpt>
      <trkpt lat="36.718370" lon="-118.935960">
        <ele>2001.947</ele>
        <time>2018-12-29T18:45:55Z</time>
      </trkpt>
      <trkpt lat="36.718410" lon="-118.935850">
        <ele>2000.947</ele>
        <time>2018-12-29T18:46:15Z</time>
      </trkpt>
      <trkpt lat="36.718450" lon="-118.935750">
        <ele>1999.873</ele>
        <time>2018-12-29T18:46:35Z</time>
      </trkpt>
      <trkpt lat="36.718470" lon="-118.935670">
        <ele>1998.642</ele>
        <time>2018-12-29T18:46:55Z</time>
      </trkpt>
      <trkpt lat="36.718500" lon="-118.935550">
        <ele>1998.514</ele>
        <time>2018-12-29T18:47:15Z</time>
      </trkpt>
      <trkpt lat="36.718510" lon="-118.935430">
        <ele>1997.354</ele>
        <time>2018-12-29T18:47:35Z</time>
      </trkpt>
      <trkpt lat="36.718540" lon="-118.935250">
        <ele>1997.409</ele>
        <time>2018-12-29T18:47:55Z</time>
      </trkpt>
      <trkpt lat="36.718570" lon="-118.935060">
        <ele>1997.208</ele>
        <time>2018-12-29T18:48:15Z</time>
      </trkpt>
      <trkpt lat="36.718590" lon="-118.934970">
        <ele>1997.384</ele>
        <time>2018-12-29T18:48:35Z</time>
      </trkpt>
      <trkpt lat="36.718610" lon="-118.934900">
        <ele>1997.532</ele>
        <time>2018-12-29T18:48:55Z</time>
      </trkpt>
      <trkpt lat="36.718630" lon="-118.934850">
        <ele>1997.797</ele>
        <time>2018-12-29T18:49:15Z</time>
      </trkpt>
      <trkpt lat="36.718650" lon="-118.934790">
        <ele>1997.757</ele>
        <time>2018-12-29T18:49:35Z</time>
      </trkpt>
      <trkpt lat="36.718730" lon="-118.934640">
        <ele>1998.461</ele>
        <time>2018-12-29T18:49:55Z</time>
      </trkpt>
      <trkpt lat="36.718780" lon="-118.934530">
        <ele>1999.631</ele>
        <time>2018-12-29T18:50:15Z</time>
      </trkpt>
      <trkpt lat="36.718850" lon="-118.934390">
        <ele>2002.417</ele>
        <time>2018-12-29T18:50:35Z</time>
      </trkpt>
      <trkpt lat="36.718890" lon="-118.934280">
        <ele>2003.766</ele>
        <time>2018-12-29T18:50:55Z</time>
      </trkpt>
      <trkpt lat="36.718910" lon="-118.934220">
        <ele>2004.943</ele>
        <time>2018-12-29T18:51:15Z</time>
      </trkpt>
      <trkpt lat="36.718920" lon="-118.934160">
        <ele>2005.664</ele>
        <time>2018-12-29T18:51:35Z</time>
      </trkpt>
      <trkpt lat="36.718940" lon="-118.934030">
        <ele>2006.610</ele>
        <time>2018-12-29T18:51:55Z</time>
      </trkpt>
      <trkpt lat="36.718950" lon="-118.933950">
        <ele>2006.708</ele>
        <time>2018-12-29T18:52:15Z</time>
      </trkpt>
      <trkpt lat="36.718960" lon="-118.933880">
        <ele>2006.897</ele>
        <time>2018-12-29T18:52:35Z</time>
      </trkpt>
      <trkpt lat="36.718960" lon="-118.933850">
        <ele>2006.735</ele>
        <time>2018-12-29T18:52:55Z</time>
      </trkpt>
      <trkpt lat="36.718960" lon="-118.933510">
        <ele>2006.930</ele>
        <time>2018-12-29T18:53:15Z</time>
      </trkpt>
      <trkpt lat="36.718970" lon="-118.933170">
        <ele>2008.330</ele>
        <time>2018-12-29T18:53:35Z</time>
      </trkpt>
      <trkpt lat="36.718970" lon="-118.932790">
        <ele>2009.544</ele>
        <time>2018-12-29T18:53:55Z</time>
      </trkpt>
      <trkpt lat="36.718970" lon="-118.932660">
        <ele>2010.074</ele>
        <time>2018-12-29T18:54:15Z</time>
      </trkpt>
      <trkpt lat="36.718960" lon="-118.932430">
        <ele>2011.620</ele>
        <time>2018-12-29T18:54:35Z</time>
      </trkpt>
      <trkpt lat="36.718940" lon="-118.932320">
        <ele>2012.179</ele>
        <time>2018-12-29T18:54:55Z</time>
      </trkpt>
      <trkpt lat="36.718930" lon="-118.932260">
        <ele>2012.872</ele>
        <time>2018-12-29T18:55:15Z</time>
      </trkpt>
      <trkpt lat="36.718910" lon="-118.932190">
        <ele>2013.213</ele>
        <time>2018-12-29T18:55:35Z</time>
      </trkpt>
      <trkpt lat="36.718860" lon="-118.932090">
        <ele>2012.814</ele>
        <time>2018-12-29T18:55:55Z</time>
      </trkpt>
      <trkpt lat="36.718790" lon="-118.931930">
        <ele>2014.008</ele>
        <time>2018-12-29T18:56:15Z</time>
      </trkpt>
      <trkpt lat="36.718740" lon="-118.931810">
        <ele>2015.590</ele>
        <time>2018-12-29T18:56:35Z</time>
      </trkpt>
      <trkpt lat="36.718700" lon="-118.931720">
        <ele>2016.098</ele>
        <time>2018-12-29T18:56:55Z</time>
      </trkpt>
      <trkpt lat="36.718670" lon="-118.931640">
        <ele>2016.563</ele>
        <time>2018-12-29T18:57:15Z</time>
      </trkpt>
      <trkpt lat="36.718640" lon="-118.931550">
        <ele>2017.073</ele>
        <time>2018-12-29T18:57:35Z</time>
      </trkpt>
      <trkpt lat="36.718620" lon="-118.931470">
        <ele>2017.177</ele>
        <time>2018-12-29T18:57:55Z</time>
      </trkpt>
      <trkpt lat="36.718610" lon="-118.931420">
        <ele>2017.187</ele>
        <time>2018-12-29T18:58:15Z</time>
      </trkpt>
      <trkpt lat="36.718600" lon="-118.931340">
        <ele>2017.253</ele>
        <time>2018-12-29T18:58:35Z</time>
      </trkpt>
      <trkpt lat="36.718590" lon="-118.931240">
        <ele>2017.472</ele>
        <time>2018-12-29T18:58:55Z</time>
      </trkpt>
      <trkpt lat="36.718590" lon="-118.931130">
        <ele>2017.469</ele>
        <time>2018-12-29T18:59:15Z</time>
      </trkpt>
      <trkpt lat="36.718590" lon="-118.931010">
        <ele>2017.504</ele>
        <time>2018-12-29T18:59:35Z</time>
      </trkpt>
      <trkpt lat="36.718600" lon="-118.930910">
        <ele>2017.624</ele>
        <time>2018-12-29T18:59:55Z</time>
      </trkpt>
      <trkpt lat="36.718630" lon="-118.930780">
        <ele>2018.108</ele>
        <time>2018-12-29T19:00:15Z</time>
      </trkpt>
      <trkpt lat="36.718660" lon="-118.930610">
        <ele>2018.169</ele>
        <time>2018-12-29T19:00:35Z</time>
      </trkpt>
      <trkpt lat="36.718700" lon="-118.930480">
        <ele>2018.587</ele>
        <time>2018-12-29T19:00:55Z</time>
      </trkpt>
      <trkpt lat="36.718780" lon="-118.930120">
        <ele>2018.212</ele>
        <time>2018-12-29T19:01:15Z</time>
      </trkpt>
      <trkpt lat="36.718850" lon="-118.929850">
        <ele>2018.062</ele>
        <time>2018-12-29T19:01:35Z</time>
      </trkpt>
      <trkpt lat="36.718890" lon="-118.929680">
        <ele>2018.566</ele>
        <time>2018-12-29T19:01:55Z</time>
      </trkpt>
      <trkpt lat="36.718900" lon="-118.929570">
        <ele>2018.646</ele>
        <time>2018-12-29T19:02:15Z</time>
      </trkpt>
      <trkpt lat="36.718900" lon="-118.929510">
        <ele>2018.932</ele>
        <time>2018-12-29T19:02:35Z</time>
      </trkpt>
      <trkpt lat="36.718910" lon="-118.929420">
        <ele>2019.661</ele>
        <time>2018-12-29T19:02:55Z</time>
      </trkpt>
      <trkpt lat="36.718910" lon="-118.929360">
        <ele>2019.938</ele>
        <time>2018-12-29T19:03:15Z</time>
      </trkpt>
      <trkpt lat="36.718900" lon="-118.929290">
        <ele>2020.070</ele>
        <time>2018-12-29T19:03:35Z</time>
      </trkpt>
      <trkpt lat="36.718900" lon="-118.929200">
        <ele>2020.717</ele>
        <time>2018-12-29T19:03:55Z</time>
      </trkpt>
      <trkpt lat="36.718880" lon="-118.929120">
        <ele>2020.708</ele>
        <time>2018-12-29T19:04:15Z</time>
      </trkpt>
      <trkpt lat="36.718870" lon="-118.929060">
        <ele>2020.916</ele>
        <time>2018-12-29T19:04:35Z</time>
      </trkpt>
      <trkpt lat="36.718850" lon="-118.928990">
        <ele>2020.914</ele>
        <time>2018-12-29T19:04:55Z</time>
      </trkpt>
      <trkpt lat="36.718820" lon="-118.928910">
        <ele>2020.769</ele>
        <time>2018-12-29T19:05:15Z</time>
      </trkpt>
      <trkpt lat="36.718780" lon="-118.928810">
        <ele>2020.719</ele>
        <time>2018-12-29T19:05:35Z</time>
      </trkpt>
      <trkpt lat="36.718740" lon="-118.928720">
        <ele>2020.733</ele>
        <time>2018-12-29T19:05:55Z</time>
      </trkpt>
      <trkpt lat="36.718710" lon="-118.928660">
        <ele>2020.993</ele>
        <time>2018-12-29T19:06:15Z</time>
      </trkpt>
      <trkpt lat="36.718690" lon="-118.928630">
        <ele>2020.999</ele>
        <time>2018-12-29T19:06:35Z</time>
      </trkpt>
      <trkpt lat="36.718660" lon="-118.928590">
        <ele>2020.818</ele>
        <time>2018-12-29T19:06:55Z</time>
      </trkpt>
      <trkpt lat="36.718610" lon="-118.928520">
        <ele>2020.857</ele>
        <time>2018-12-29T19:07:15Z</time>
      </trkpt>
      <trkpt lat="36.718570" lon="-118.928460">
        <ele>2021.000</ele>
        <time>2018-12-29T19:07:35Z</time>
      </trkpt>
      <trkpt lat="36.718510" lon="-118.928400">
        <ele>2020.820</ele>
        <time>2018-12-29T19:07:55Z</time>
      </trkpt>
      <trkpt lat="36.718450" lon="-118.928330">
        <ele>2020.808</ele>
        <time>2018-12-29T19:08:15Z</time>
      </trkpt>
      <trkpt lat="36.718200" lon="-118.928070">
        <ele>2021.428</ele>
        <time>2018-12-29T19:08:35Z</time>
      </trkpt>
      <trkpt lat="36.717940" lon="-118.927790">
        <ele>2023.486</ele>
        <time>2018-12-29T19:08:55Z</time>
      </trkpt>
      <trkpt lat="36.717680" lon="-118.927510">
        <ele>2028.291</ele>
        <time>2018-12-29T19:09:15Z</time>
      </trkpt>
      <trkpt lat="36.717580" lon="-118.927400">
        <ele>2028.811</ele>
        <time>2018-12-29T19:09:35Z</time>
      </trkpt>
      <trkpt lat="36.717300" lon="-118.927110">
        <ele>2030.445</ele>
        <time>2018-12-29T19:09:55Z</time>
      </trkpt>
      <trkpt lat="36.717170" lon="-118.926970">
        <ele>2031.755</ele>
        <time>2018-12-29T19:10:15Z</time>
      </trkpt>
      <trkpt lat="36.716980" lon="-118.926780">
        <ele>2032.511</ele>
        <time>2018-12-29T19:10:35Z</time>
      </trkpt>
      <trkpt lat="36.716880" lon="-118.926670">
        <ele>2033.810</ele>
        <time>2018-12-29T19:10:55Z</time>
      </trkpt>
      <trkpt lat="36.716680" lon="-118.926460">
        <ele>2037.889</ele>
        <time>2018-12-29T19:11:15Z</time>
      </trkpt>
      <trkpt lat="36.716580" lon="-118.926330">
        <ele>2041.006</ele>
        <time>2018-12-29T19:11:35Z</time>
      </trkpt>
      <trkpt lat="36.716440" lon="-118.926190">
        <ele>2041.826</ele>
        <time>2018-12-29T19:11:55Z</time>
      </trkpt>
      <trkpt lat="36.716330" lon="-118.926070">
        <ele>2042.408</ele>
        <time>2018-12-29T19:12:15Z</time>
      </trkpt>
      <trkpt lat="36.716220" lon="-118.925960">
        <ele>2042.481</ele>
        <time>2018-12-29T19:12:35Z</time>
      </trkpt>
      <trkpt lat="36.716130" lon="-118.925870">
        <ele>2042.349</ele>
        <time>2018-12-29T19:12:55Z</time>
      </trkpt>
      <trkpt lat="36.716060" lon="-118.925780">
        <ele>2042.734</ele>
        <time>2018-12-29T19:13:15Z</time>
      </trkpt>
      <trkpt lat="36.716000" lon="-118.925700">
        <ele>2042.924</ele>
        <time>2018-12-29T19:13:35Z</time>
      </trkpt>
      <trkpt lat="36.715950" lon="-118.925590">
        <ele>2044.048</ele>
        <time>2018-12-29T19:13:55Z</time>
      </trkpt>
      <trkpt lat="36.715900" lon="-118.925480">
        <ele>2045.158</ele>
        <time>2018-12-29T19:14:15Z</time>
      </trkpt>
      <trkpt lat="36.715860" lon="-118.925380">
        <ele>2045.984</ele>
        <time>2018-12-29T19:14:35Z</time>
      </trkpt>
      <trkpt lat="36.715830" lon="-118.925240">
        <ele>2047.443</ele>
        <time>2018-12-29T19:14:55Z</time>
      </trkpt>
      <trkpt lat="36.715800" lon="-118.925100">
        <ele>2048.353</ele>
        <time>2018-12-29T19:15:15Z</time>
      </trkpt>
      <trkpt lat="36.715790" lon="-118.924960">
        <ele>2049.204</ele>
        <time>2018-12-29T19:15:35Z</time>
      </trkpt>
      <trkpt lat="36.715790" lon="-118.924840">
        <ele>2050.014</ele>
        <time>2018-12-29T19:15:55Z</time>
      </trkpt>
      <trkpt lat="36.715800" lon="-118.924740">
        <ele>2050.208</ele>
        <time>2018-12-29T19:16:15Z</time>
      </trkpt>
      <trkpt lat="36.715820" lon="-118.924620">
        <ele>2050.728</ele>
        <time>2018-12-29T19:16:35Z</time>
      </trkpt>
      <trkpt lat="36.715860" lon="-118.924480">
        <ele>2050.756</ele>
        <time>2018-12-29T19:16:55Z</time>
      </trkpt>
      <trkpt lat="36.715890" lon="-118.924400">
        <ele>2050.461</ele>
        <time>2018-12-29T19:17:15Z</time>
      </trkpt>
      <trkpt lat="36.715950" lon="-118.924290">
        <ele>2050.151</ele>
        <time>2018-12-29T19:17:35Z</time>
      </trkpt>
      <trkpt lat="36.716000" lon="-118.924210">
        <ele>2050.215</ele>
        <time>2018-12-29T19:17:55Z</time>
      </trkpt>
      <trkpt lat="36.716080" lon="-118.924110">
        <ele>2050.495</ele>
        <time>2018-12-29T19:18:15Z</time>
      </trkpt>
      <trkpt lat="36.716160" lon="-118.924030">
        <ele>2050.161</ele>
        <time>2018-12-29T19:18:35Z</time>
      </trkpt>
      <trkpt lat="36.716220" lon="-118.923970">
        <ele>2049.930</ele>
        <time>2018-12-29T19:18:55Z</time>
      </trkpt>
      <trkpt lat="36.716310" lon="-118.923910">
        <ele>2050.238</ele>
        <time>2018-12-29T19:19:15Z</time>
      </trkpt>
      <trkpt lat="36.716400" lon="-118.923860">
        <ele>2050.570</ele>
        <time>2018-12-29T19:19:35Z</time>
      </trkpt>
      <trkpt lat="36.716510" lon="-118.923800">
        <ele>2050.217</ele>
        <time>2018-12-29T19:19:55Z</time>
      </trkpt>
      <trkpt lat="36.716630" lon="-118.923740">
        <ele>2050.608</ele>
        <time>2018-12-29T19:20:15Z</time>
      </trkpt>
      <trkpt lat="36.716680" lon="-118.923720">
        <ele>2051.276</ele>
        <time>2018-12-29T19:20:35Z</time>
      </trkpt>
      <trkpt lat="36.716880" lon="-118.923620">
        <ele>2052.844</ele>
        <time>2018-12-29T19:20:55Z</time>
      </trkpt>
      <trkpt lat="36.717370" lon="-118.923380">
        <ele>2057.859</ele>
        <time>2018-12-29T19:21:15Z</time>
      </trkpt>
      <trkpt lat="36.717650" lon="-118.923250">
        <ele>2058.779</ele>
        <time>2018-12-29T19:21:35Z</time>
      </trkpt>
      <trkpt lat="36.717840" lon="-118.923160">
        <ele>2059.023</ele>
        <time>2018-12-29T19:21:55Z</time>
      </trkpt>
      <trkpt lat="36.718040" lon="-118.923060">
        <ele>2059.613</ele>
        <time>2018-12-29T19:22:15Z</time>
      </trkpt>
      <trkpt lat="36.718260" lon="-118.922950">
        <ele>2060.279</ele>
        <time>2018-12-29T19:22:35Z</time>
      </trkpt>
      <trkpt lat="36.718450" lon="-118.922860">
        <ele>2061.118</ele>
        <time>2018-12-29T19:22:55Z</time>
      </trkpt>
      <trkpt lat="36.718680" lon="-118.922750">
        <ele>2064.491</ele>
        <time>2018-12-29T19:23:15Z</time>
      </trkpt>
      <trkpt lat="36.718960" lon="-118.922610">
        <ele>2066.181</ele>
        <time>2018-12-29T19:23:35Z</time>
      </trkpt>
      <trkpt lat="36.718990" lon="-118.922600">
        <ele>2066.419</ele>
        <time>2018-12-29T19:23:55Z</time>
      </trkpt>
      <trkpt lat="36.719130" lon="-118.922530">
        <ele>2067.208</ele>
        <time>2018-12-29T19:24:15Z</time>
      </trkpt>
      <trkpt lat="36.719320" lon="-118.922440">
        <ele>2068.782</ele>
        <time>2018-12-29T19:24:35Z</time>
      </trkpt>
      <trkpt lat="36.719450" lon="-118.922370">
        <ele>2070.460</ele>
        <time>2018-12-29T19:24:55Z</time>
      </trkpt>
      <trkpt lat="36.719540" lon="-118.922320">
        <ele>2071.335</ele>
        <time>2018-12-29T19:25:15Z</time>
      </trkpt>
      <trkpt lat="36.719630" lon="-118.922260">
        <ele>2072.125</ele>
        <time>2018-12-29T19:25:35Z</time>
      </trkpt>
      <trkpt lat="36.719710" lon="-118.922190">
        <ele>2072.749</ele>
        <time>2018-12-29T19:25:55Z</time>
      </trkpt>
      <trkpt lat="36.719770" lon="-118.922120">
        <ele>2072.979</ele>
        <time>2018-12-29T19:26:15Z</time>
      </trkpt>
      <trkpt lat="36.719830" lon="-118.922060">
        <ele>2073.395</ele>
        <time>2018-12-29T19:26:35Z</time>
      </trkpt>
      <trkpt lat="36.719870" lon="-118.922000">
        <ele>2073.444</ele>
        <time>2018-12-29T19:26:55Z</time>
      </trkpt>
      <trkpt lat="36.719900" lon="-118.921950">
        <ele>2073.671</ele>
        <time>2018-12-29T19:27:15Z</time>
      </trkpt>
      <trkpt lat="36.719940" lon="-118.921880">
        <ele>2073.741</ele>
        <time>2018-12-29T19:27:35Z</time>
      </trkpt>
      <trkpt lat="36.719990" lon="-118.921780">
        <ele>2073.215</ele>
        <time>2018-12-29T19:27:55Z</time>
      </trkpt>
      <trkpt lat="36.720020" lon="-118.921700">
        <ele>2072.308</ele>
        <time>2018-12-29T19:28:15Z</time>
      </trkpt>
      <trkpt lat="36.720050" lon="-118.921610">
        <ele>2071.050</ele>
        <time>2018-12-29T19:28:35Z</time>
      </trkpt>
      <trkpt lat="36.720070" lon="-118.921530">
        <ele>2069.638</ele>
        <time>2018-12-29T19:28:55Z</time>
      </trkpt>
      <trkpt lat="36.720090" lon="-118.921420">
        <ele>2069.743</ele>
        <time>2018-12-29T19:29:15Z</time>
      </trkpt>
      <trkpt lat="36.720090" lon="-118.921360">
        <ele>2069.623</ele>
        <time>2018-12-29T19:29:35Z</time>
      </trkpt>
      <trkpt lat="36.720100" lon="-118.921300">
        <ele>2069.727</ele>
        <time>2018-12-29T19:29:55Z</time>
      </trkpt>
      <trkpt lat="36.720100" lon="-118.921180">
        <ele>2069.927</ele>
        <time>2018-12-29T19:30:15Z</time>
      </trkpt>
      <trkpt lat="36.720090" lon="-118.921080">
        <ele>2070.163</ele>
        <time>2018-12-29T19:30:35Z</time>
      </trkpt>
      <trkpt lat="36.720070" lon="-118.920980">
        <ele>2070.172</ele>
        <time>2018-12-29T19:30:55Z</time>
      </trkpt>
      <trkpt lat="36.720050" lon="-118.920870">
        <ele>2073.344</ele>
        <time>2018-12-29T19:31:15Z</time>
      </trkpt>
      <trkpt lat="36.720010" lon="-118.920760">
        <ele>2076.105</ele>
        <time>2018-12-29T19:31:35Z</time>
      </trkpt>
      <trkpt lat="36.719980" lon="-118.920690">
        <ele>2077.615</ele>
        <time>2018-12-29T19:31:55Z</time>
      </trkpt>
      <trkpt lat="36.719960" lon="-118.920640">
        <ele>2078.708</ele>
        <time>2018-12-29T19:32:15Z</time>
      </trkpt>
      <trkpt lat="36.719940" lon="-118.920600">
        <ele>2079.287</ele>
        <time>2018-12-29T19:32:35Z</time>
      </trkpt>
      <trkpt lat="36.719910" lon="-118.920550">
        <ele>2079.535</ele>
        <time>2018-12-29T19:32:55Z</time>
      </trkpt>
      <trkpt lat="36.719880" lon="-118.920500">
        <ele>2079.430</ele>
        <time>2018-12-29T19:33:15Z</time>
      </trkpt>
      <trkpt lat="36.719840" lon="-118.920440">
        <ele>2078.980</ele>
        <time>2018-12-29T19:33:35Z</time>
      </trkpt>
      <trkpt lat="36.719770" lon="-118.920350">
        <ele>2079.524</ele>
        <time>2018-12-29T19:33:55Z</time>
      </trkpt>
      <trkpt lat="36.719520" lon="-118.920050">
        <ele>2079.714</ele>
        <time>2018-12-29T19:34:15Z</time>
      </trkpt>
      <trkpt lat="36.719390" lon="-118.919900">
        <ele>2080.260</ele>
        <time>2018-12-29T19:34:35Z</time>
      </trkpt>
      <trkpt lat="36.719140" lon="-118.919600">
        <ele>2080.939</ele>
        <time>2018-12-29T19:34:55Z</time>
      </trkpt>
      <trkpt lat="36.719030" lon="-118.919490">
        <ele>2080.125</ele>
        <time>2018-12-29T19:35:15Z</time>
      </trkpt>
      <trkpt lat="36.718980" lon="-118.919410">
        <ele>2080.926</ele>
        <time>2018-12-29T19:35:35Z</time>
      </trkpt>
      <trkpt lat="36.718940" lon="-118.919360">
        <ele>2080.808</ele>
        <time>2018-12-29T19:35:55Z</time>
      </trkpt>
      <trkpt lat="36.718900" lon="-118.919290">
        <ele>2081.508</ele>
        <time>2018-12-29T19:36:15Z</time>
      </trkpt>
      <trkpt lat="36.718860" lon="-118.919200">
        <ele>2082.425</ele>
        <time>2018-12-29T19:36:35Z</time>
      </trkpt>
      <trkpt lat="36.718820" lon="-118.919100">
        <ele>2082.833</ele>
        <time>2018-12-29T19:36:55Z</time>
      </trkpt>
      <trkpt lat="36.718790" lon="-118.919000">
        <ele>2083.028</ele>
        <time>2018-12-29T19:37:15Z</time>
      </trkpt>
      <trkpt lat="36.718770" lon="-118.918940">
        <ele>2082.378</ele>
        <time>2018-12-29T19:37:35Z</time>
      </trkpt>
      <trkpt lat="36.718760" lon="-118.918880">
        <ele>2082.492</ele>
        <time>2018-12-29T19:37:55Z</time>
      </trkpt>
      <trkpt lat="36.718750" lon="-118.918820">
        <ele>2082.572</ele>
        <time>2018-12-29T19:38:15Z</time>
      </trkpt>
      <trkpt lat="36.718740" lon="-118.918760">
        <ele>2083.328</ele>
        <time>2018-12-29T19:38:35Z</time>
      </trkpt>
      <trkpt lat="36.718740" lon="-118.918710">
        <ele>2083.787</ele>
        <time>2018-12-29T19:38:55Z</time>
      </trkpt>
      <trkpt lat="36.718740" lon="-118.918660">
        <ele>2083.945</ele>
        <time>2018-12-29T19:39:15Z</time>
      </trkpt>
      <trkpt lat="36.718750" lon="-118.918560">
        <ele>2084.347</ele>
        <time>2018-12-29T19:39:35Z</time>
      </trkpt>
      <trkpt lat="36.718760" lon="-118.918470">
        <ele>2085.711</ele>
        <time>2018-12-29T19:39:55Z</time>
      </trkpt>
      <trkpt lat="36.718780" lon="-118.918380">
        <ele>2087.208</ele>
        <time>2018-12-29T19:40:15Z</time>
      </trkpt>
      <trkpt lat="36.718800" lon="-118.918290">
        <ele>2088.517</ele>
        <time>2018-12-29T19:40:35Z</time>
      </trkpt>
      <trkpt lat="36.718830" lon="-118.918220">
        <ele>2090.875</ele>
        <time>2018-12-29T19:40:55Z</time>
      </trkpt>
      <trkpt lat="36.718860" lon="-118.918170">
        <ele>2092.680</ele>
        <time>2018-12-29T19:41:15Z</time>
      </trkpt>
      <trkpt lat="36.718900" lon="-118.918090">
        <ele>2093.360</ele>
        <time>2018-12-29T19:41:35Z</time>
      </trkpt>
      <trkpt lat="36.718980" lon="-118.917970">
        <ele>2093.224</ele>
        <time>2018-12-29T19:41:55Z</time>
      </trkpt>
      <trkpt lat="36.719040" lon="-118.917900">
        <ele>2093.054</ele>
        <time>2018-12-29T19:42:15Z</time>
      </trkpt>
      <trkpt lat="36.719140" lon="-118.917810">
        <ele>2097.630</ele>
        <time>2018-12-29T19:42:35Z</time>
      </trkpt>
      <trkpt lat="36.719220" lon="-118.917730">
        <ele>2099.219</ele>
        <time>2018-12-29T19:42:55Z</time>
      </trkpt>
      <trkpt lat="36.719350" lon="-118.917630">
        <ele>2100.923</ele>
        <time>2018-12-29T19:43:15Z</time>
      </trkpt>
      <trkpt lat="36.719550" lon="-118.917450">
        <ele>2100.283</ele>
        <time>2018-12-29T19:43:35Z</time>
      </trkpt>
      <trkpt lat="36.719760" lon="-118.917270">
        <ele>2099.211</ele>
        <time>2018-12-29T19:43:55Z</time>
      </trkpt>
      <trkpt lat="36.719890" lon="-118.917170">
        <ele>2097.608</ele>
        <time>2018-12-29T19:44:15Z</time>
      </trkpt>
      <trkpt lat="36.720060" lon="-118.917060">
        <ele>2093.365</ele>
        <time>2018-12-29T19:44:35Z</time>
      </trkpt>
      <trkpt lat="36.720110" lon="-118.917020">
        <ele>2092.723</ele>
        <time>2018-12-29T19:44:55Z</time>
      </trkpt>
      <trkpt lat="36.720180" lon="-118.916980">
        <ele>2093.258</ele>
        <time>2018-12-29T19:45:15Z</time>
      </trkpt>
      <trkpt lat="36.720260" lon="-118.916950">
        <ele>2094.388</ele>
        <time>2018-12-29T19:45:35Z</time>
      </trkpt>
      <trkpt lat="36.720330" lon="-118.916920">
        <ele>2094.852</ele>
        <time>2018-12-29T19:45:55Z</time>
      </trkpt>
      <trkpt lat="36.720410" lon="-118.916890">
        <ele>2095.072</ele>
        <time>2018-12-29T19:46:15Z</time>
      </trkpt>
      <trkpt lat="36.720470" lon="-118.916870">
        <ele>2095.248</ele>
        <time>2018-12-29T19:46:35Z</time>
      </trkpt>
      <trkpt lat="36.720560" lon="-118.916840">
        <ele>2094.937</ele>
        <time>2018-12-29T19:46:55Z</time>
      </trkpt>
      <trkpt lat="36.720740" lon="-118.916790">
        <ele>2094.686</ele>
        <time>2018-12-29T19:47:15Z</time>
      </trkpt>
      <trkpt lat="36.720920" lon="-118.916740">
        <ele>2096.060</ele>
        <time>2018-12-29T19:47:35Z</time>
      </trkpt>
      <trkpt lat="36.721030" lon="-118.916700">
        <ele>2097.226</ele>
        <time>2018-12-29T19:47:55Z</time>
      </trkpt>
      <trkpt lat="36.721090" lon="-118.916670">
        <ele>2097.608</ele>
        <time>2018-12-29T19:48:15Z</time>
      </trkpt>
      <trkpt lat="36.721180" lon="-118.916610">
        <ele>2097.021</ele>
        <time>2018-12-29T19:48:35Z</time>
      </trkpt>
      <trkpt lat="36.721230" lon="-118.916570">
        <ele>2096.119</ele>
        <time>2018-12-29T19:48:55Z</time>
      </trkpt>
      <trkpt lat="36.721290" lon="-118.916500">
        <ele>2094.684</ele>
        <time>2018-12-29T19:49:15Z</time>
      </trkpt>
      <trkpt lat="36.721350" lon="-118.916430">
        <ele>2095.074</ele>
        <time>2018-12-29T19:49:35Z</time>
      </trkpt>
      <trkpt lat="36.721390" lon="-118.916380">
        <ele>2095.368</ele>
        <time>2018-12-29T19:49:55Z</time>
      </trkpt>
      <trkpt lat="36.721440" lon="-118.916300">
        <ele>2095.678</ele>
        <time>2018-12-29T19:50:15Z</time>
      </trkpt>
      <trkpt lat="36.721480" lon="-118.916210">
        <ele>2095.524</ele>
        <time>2018-12-29T19:50:35Z</time>
      </trkpt>
      <trkpt lat="36.721520" lon="-118.916130">
        <ele>2095.633</ele>
        <time>2018-12-29T19:50:55Z</time>
      </trkpt>
      <trkpt lat="36.721550" lon="-118.916020">
        <ele>2094.619</ele>
        <time>2018-12-29T19:51:15Z</time>
      </trkpt>
      <trkpt lat="36.721560" lon="-118.915950">
        <ele>2093.709</ele>
        <time>2018-12-29T19:51:35Z</time>
      </trkpt>
      <trkpt lat="36.721570" lon="-118.915840">
        <ele>2092.119</ele>
        <time>2018-12-29T19:51:55Z</time>
      </trkpt>
      <trkpt lat="36.721580" lon="-118.915760">
        <ele>2091.008</ele>
        <time>2018-12-29T19:52:15Z</time>
      </trkpt>
      <trkpt lat="36.721580" lon="-118.915670">
        <ele>2089.964</ele>
        <time>2018-12-29T19:52:35Z</time>
      </trkpt>
      <trkpt lat="36.721570" lon="-118.915600">
        <ele>2089.882</ele>
        <time>2018-12-29T19:52:55Z</time>
      </trkpt>
      <trkpt lat="36.721550" lon="-118.915490">
        <ele>2089.677</ele>
        <time>2018-12-29T19:53:15Z</time>
      </trkpt>
      <trkpt lat="36.721530" lon="-118.915410">
        <ele>2089.427</ele>
        <time>2018-12-29T19:53:35Z</time>
      </trkpt>
      <trkpt lat="36.721510" lon="-118.915330">
        <ele>2089.381</ele>
        <time>2018-12-29T19:53:55Z</time>
      </trkpt>
      <trkpt lat="36.721480" lon="-118.915250">
        <ele>2089.261</ele>
        <time>2018-12-29T19:54:15Z</time>
      </trkpt>
      <trkpt lat="36.721430" lon="-118.915160">
        <ele>2089.127</ele>
        <time>2018-12-29T19:54:35Z</time>
      </trkpt>
      <trkpt lat="36.721360" lon="-118.915030">
        <ele>2089.646</ele>
        <time>2018-12-29T19:54:55Z</time>
      </trkpt>
      <trkpt lat="36.721290" lon="-118.914910">
        <ele>2090.017</ele>
        <time>2018-12-29T19:55:15Z</time>
      </trkpt>
      <trkpt lat="36.721210" lon="-118.914770">
        <ele>2090.287</ele>
        <time>2018-12-29T19:55:35Z</time>
      </trkpt>
      <trkpt lat="36.721100" lon="-118.914570">
        <ele>2090.115</ele>
        <time>2018-12-29T19:55:55Z</time>
      </trkpt>
      <trkpt lat="36.721050" lon="-118.914490">
        <ele>2090.208</ele>
        <time>2018-12-29T19:56:15Z</time>
      </trkpt>
      <trkpt lat="36.720990" lon="-118.914340">
        <ele>2091.074</ele>
        <time>2018-12-29T19:56:35Z</time>
      </trkpt>
      <trkpt lat="36.720960" lon="-118.914260">
        <ele>2091.432</ele>
        <time>2018-12-29T19:56:55Z</time>
      </trkpt>
      <trkpt lat="36.720920" lon="-118.914130">
        <ele>2092.467</ele>
        <time>2018-12-29T19:57:15Z</time>
      </trkpt>
      <trkpt lat="36.720900" lon="-118.914010">
        <ele>2093.537</ele>
        <time>2018-12-29T19:57:35Z</time>
      </trkpt>
      <trkpt lat="36.720890" lon="-118.913910">
        <ele>2094.041</ele>
        <time>2018-12-29T19:57:55Z</time>
      </trkpt>
      <trkpt lat="36.720880" lon="-118.913820">
        <ele>2094.451</ele>
        <time>2018-12-29T19:58:15Z</time>
      </trkpt>
      <trkpt lat="36.720880" lon="-118.913730">
        <ele>2094.937</ele>
        <time>2018-12-29T19:58:35Z</time>
      </trkpt>
      <trkpt lat="36.720890" lon="-118.913620">
        <ele>2095.346</ele>
        <time>2018-12-29T19:58:55Z</time>
      </trkpt>
      <trkpt lat="36.720900" lon="-118.913510">
        <ele>2095.786</ele>
        <time>2018-12-29T19:59:15Z</time>
      </trkpt>
      <trkpt lat="36.720930" lon="-118.913270">
        <ele>2095.860</ele>
        <time>2018-12-29T19:59:35Z</time>
      </trkpt>
      <trkpt lat="36.720990" lon="-118.912910">
        <ele>2095.026</ele>
        <time>2018-12-29T19:59:55Z</time>
      </trkpt>
      <trkpt lat="36.721190" lon="-118.911610">
        <ele>2103.208</ele>
        <time>2018-12-29T20:00:15Z</time>
      </trkpt>
      <trkpt lat="36.721270" lon="-118.911050">
        <ele>2108.631</ele>
        <time>2018-12-29T20:00:35Z</time>
      </trkpt>
      <trkpt lat="36.721370" lon="-118.910420">
        <ele>2106.449</ele>
        <time>2018-12-29T20:00:55Z</time>
      </trkpt>
      <trkpt lat="36.721470" lon="-118.909720">
        <ele>2107.994</ele>
        <time>2018-12-29T20:01:15Z</time>
      </trkpt>
      <trkpt lat="36.721500" lon="-118.909540">
        <ele>2107.924</ele>
        <time>2018-12-29T20:01:35Z</time>
      </trkpt>
      <trkpt lat="36.721510" lon="-118.909350">
        <ele>2106.928</ele>
        <time>2018-12-29T20:01:55Z</time>
      </trkpt>
      <trkpt lat="36.721520" lon="-118.909190">
        <ele>2106.618</ele>
        <time>2018-12-29T20:02:15Z</time>
      </trkpt>
      <trkpt lat="36.721510" lon="-118.909150">
        <ele>2106.694</ele>
        <time>2018-12-29T20:02:35Z</time>
      </trkpt>
      <trkpt lat="36.721510" lon="-118.909100">
        <ele>2106.583</ele>
        <time>2018-12-29T20:02:55Z</time>
      </trkpt>
      <trkpt lat="36.721500" lon="-118.909000">
        <ele>2106.649</ele>
        <time>2018-12-29T20:03:15Z</time>
      </trkpt>
      <trkpt lat="36.721490" lon="-118.908910">
        <ele>2107.102</ele>
        <time>2018-12-29T20:03:35Z</time>
      </trkpt>
      <trkpt lat="36.721480" lon="-118.908820">
        <ele>2107.522</ele>
        <time>2018-12-29T20:03:55Z</time>
      </trkpt>
      <trkpt lat="36.721460" lon="-118.908740">
        <ele>2107.808</ele>
        <time>2018-12-29T20:04:15Z</time>
      </trkpt>
      <trkpt lat="36.721450" lon="-118.908670">
        <ele>2107.927</ele>
        <time>2018-12-29T20:04:35Z</time>
      </trkpt>
      <trkpt lat="36.721430" lon="-118.908590">
        <ele>2108.055</ele>
        <time>2018-12-29T20:04:55Z</time>
      </trkpt>
      <trkpt lat="36.721410" lon="-118.908520">
        <ele>2108.040</ele>
        <time>2018-12-29T20:05:15Z</time>
      </trkpt>
      <trkpt lat="36.721390" lon="-118.908440">
        <ele>2108.160</ele>
        <time>2018-12-29T20:05:35Z</time>
      </trkpt>
      <trkpt lat="36.721360" lon="-118.908380">
        <ele>2108.254</ele>
        <time>2018-12-29T20:05:55Z</time>
      </trkpt>
      <trkpt lat="36.721330" lon="-118.908280">
        <ele>2108.374</ele>
        <time>2018-12-29T20:06:15Z</time>
      </trkpt>
      <trkpt lat="36.721290" lon="-118.908190">
        <ele>2108.410</ele>
        <time>2018-12-29T20:06:35Z</time>
      </trkpt>
      <trkpt lat="36.721240" lon="-118.908090">
        <ele>2109.079</ele>
        <time>2018-12-29T20:06:55Z</time>
      </trkpt>
      <trkpt lat="36.721200" lon="-118.908010">
        <ele>2109.796</ele>
        <time>2018-12-29T20:07:15Z</time>
      </trkpt>
      <trkpt lat="36.721160" lon="-118.907930">
        <ele>2110.631</ele>
        <time>2018-12-29T20:07:35Z</time>
      </trkpt>
      <trkpt lat="36.721090" lon="-118.907830">
        <ele>2112.324</ele>
        <time>2018-12-29T20:07:55Z</time>
      </trkpt>
      <trkpt lat="36.721030" lon="-118.907750">
        <ele>2113.308</ele>
        <time>2018-12-29T20:08:15Z</time>
      </trkpt>
      <trkpt lat="36.720970" lon="-118.907680">
        <ele>2113.832</ele>
        <time>2018-12-29T20:08:35Z</time>
      </trkpt>
      <trkpt lat="36.720890" lon="-118.907580">
        <ele>2114.110</ele>
        <time>2018-12-29T20:08:55Z</time>
      </trkpt>
      <trkpt lat="36.720810" lon="-118.907500">
        <ele>2113.995</ele>
        <time>2018-12-29T20:09:15Z</time>
      </trkpt>
      <trkpt lat="36.720700" lon="-118.907400">
        <ele>2113.235</ele>
        <time>2018-12-29T20:09:35Z</time>
      </trkpt>
      <trkpt lat="36.720640" lon="-118.907360">
        <ele>2112.919</ele>
        <time>2018-12-29T20:09:55Z</time>
      </trkpt>
      <trkpt lat="36.720600" lon="-118.907330">
        <ele>2112.859</ele>
        <time>2018-12-29T20:10:15Z</time>
      </trkpt>
      <trkpt lat="36.720550" lon="-118.907300">
        <ele>2112.665</ele>
        <time>2018-12-29T20:10:35Z</time>
      </trkpt>
      <trkpt lat="36.720500" lon="-118.907260">
        <ele>2112.684</ele>
        <time>2018-12-29T20:10:55Z</time>
      </trkpt>
      <trkpt lat="36.720390" lon="-118.907200">
        <ele>2112.483</ele>
        <time>2018-12-29T20:11:15Z</time>
      </trkpt>
      <trkpt lat="36.720320" lon="-118.907170">
        <ele>2112.325</ele>
        <time>2018-12-29T20:11:35Z</time>
      </trkpt>
      <trkpt lat="36.720260" lon="-118.907140">
        <ele>2112.517</ele>
        <time>2018-12-29T20:11:55Z</time>
      </trkpt>
      <trkpt lat="36.720180" lon="-118.907110">
        <ele>2112.708</ele>
        <time>2018-12-29T20:12:15Z</time>
      </trkpt>
      <trkpt lat="36.720060" lon="-118.907080">
        <ele>2113.341</ele>
        <time>2018-12-29T20:12:35Z</time>
      </trkpt>
      <trkpt lat="36.719930" lon="-118.907050">
        <ele>2114.139</ele>
        <time>2018-12-29T20:12:55Z</time>
      </trkpt>
      <trkpt lat="36.719850" lon="-118.907040">
        <ele>2114.484</ele>
        <time>2018-12-29T20:13:15Z</time>
      </trkpt>
      <trkpt lat="36.719700" lon="-118.907020">
        <ele>2115.874</ele>
        <time>2018-12-29T20:13:35Z</time>
      </trkpt>
      <trkpt lat="36.719440" lon="-118.906980">
        <ele>2119.378</ele>
        <time>2018-12-29T20:13:55Z</time>
      </trkpt>
      <trkpt lat="36.719350" lon="-118.906960">
        <ele>2120.898</ele>
        <time>2018-12-29T20:14:15Z</time>
      </trkpt>
      <trkpt lat="36.719240" lon="-118.906930">
        <ele>2121.824</ele>
        <time>2018-12-29T20:14:35Z</time>
      </trkpt>
      <trkpt lat="36.719170" lon="-118.906910">
        <ele>2122.073</ele>
        <time>2018-12-29T20:14:55Z</time>
      </trkpt>
      <trkpt lat="36.719100" lon="-118.906890">
        <ele>2122.319</ele>
        <time>2018-12-29T20:15:15Z</time>
      </trkpt>
      <trkpt lat="36.719020" lon="-118.906860">
        <ele>2122.909</ele>
        <time>2018-12-29T20:15:35Z</time>
      </trkpt>
      <trkpt lat="36.718900" lon="-118.906820">
        <ele>2124.119</ele>
        <time>2018-12-29T20:15:55Z</time>
      </trkpt>
      <trkpt lat="36.718830" lon="-118.906790">
        <ele>2124.708</ele>
        <time>2018-12-29T20:16:15Z</time>
      </trkpt>
      <trkpt lat="36.718750" lon="-118.906750">
        <ele>2125.384</ele>
        <time>2018-12-29T20:16:35Z</time>
      </trkpt>
      <trkpt lat="36.718630" lon="-118.906690">
        <ele>2126.582</ele>
        <time>2018-12-29T20:16:55Z</time>
      </trkpt>
      <trkpt lat="36.718560" lon="-118.906650">
        <ele>2127.247</ele>
        <time>2018-12-29T20:17:15Z</time>
      </trkpt>
      <trkpt lat="36.718490" lon="-118.906620">
        <ele>2127.757</ele>
        <time>2018-12-29T20:17:35Z</time>
      </trkpt>
      <trkpt lat="36.718440" lon="-118.906580">
        <ele>2128.211</ele>
        <time>2018-12-29T20:17:55Z</time>
      </trkpt>
      <trkpt lat="36.718310" lon="-118.906490">
        <ele>2129.491</ele>
        <time>2018-12-29T20:18:15Z</time>
      </trkpt>
      <trkpt lat="36.718140" lon="-118.906370">
        <ele>2130.827</ele>
        <time>2018-12-29T20:18:35Z</time>
      </trkpt>
      <trkpt lat="36.718090" lon="-118.906330">
        <ele>2131.586</ele>
        <time>2018-12-29T20:18:55Z</time>
      </trkpt>
      <trkpt lat="36.718030" lon="-118.906280">
        <ele>2132.419</ele>
        <time>2018-12-29T20:19:15Z</time>
      </trkpt>
      <trkpt lat="36.717820" lon="-118.906080">
        <ele>2135.809</ele>
        <time>2018-12-29T20:19:35Z</time>
      </trkpt>
      <trkpt lat="36.717710" lon="-118.905960">
        <ele>2137.719</ele>
        <time>2018-12-29T20:19:55Z</time>
      </trkpt>
      <trkpt lat="36.717590" lon="-118.905830">
        <ele>2139.108</ele>
        <time>2018-12-29T20:20:15Z</time>
      </trkpt>
      <trkpt lat="36.717520" lon="-118.905730">
        <ele>2139.634</ele>
        <time>2018-12-29T20:20:35Z</time>
      </trkpt>
      <trkpt lat="36.717400" lon="-118.905560">
        <ele>2140.412</ele>
        <time>2018-12-29T20:20:55Z</time>
      </trkpt>
      <trkpt lat="36.717270" lon="-118.905350">
        <ele>2141.177</ele>
        <time>2018-12-29T20:21:15Z</time>
      </trkpt>
      <trkpt lat="36.717220" lon="-118.905250">
        <ele>2141.517</ele>
        <time>2018-12-29T20:21:35Z</time>
      </trkpt>
      <trkpt lat="36.717160" lon="-118.905150">
        <ele>2141.781</ele>
        <time>2018-12-29T20:21:55Z</time>
      </trkpt>
      <trkpt lat="36.717070" lon="-118.904970">
        <ele>2142.261</ele>
        <time>2018-12-29T20:22:15Z</time>
      </trkpt>
      <trkpt lat="36.716860" lon="-118.904520">
        <ele>2142.877</ele>
        <time>2018-12-29T20:22:35Z</time>
      </trkpt>
      <trkpt lat="36.716710" lon="-118.904180">
        <ele>2145.686</ele>
        <time>2018-12-29T20:22:55Z</time>
      </trkpt>
      <trkpt lat="36.716540" lon="-118.903820">
        <ele>2151.637</ele>
        <time>2018-12-29T20:23:15Z</time>
      </trkpt>
      <trkpt lat="36.716270" lon="-118.903250">
        <ele>2154.449</ele>
        <time>2018-12-29T20:23:35Z</time>
      </trkpt>
      <trkpt lat="36.716210" lon="-118.903090">
        <ele>2155.613</ele>
        <time>2018-12-29T20:23:55Z</time>
      </trkpt>
      <trkpt lat="36.716160" lon="-118.902970">
        <ele>2157.008</ele>
        <time>2018-12-29T20:24:15Z</time>
      </trkpt>
      <trkpt lat="36.716140" lon="-118.902880">
        <ele>2158.496</ele>
        <time>2018-12-29T20:24:35Z</time>
      </trkpt>
      <trkpt lat="36.716120" lon="-118.902820">
        <ele>2159.014</ele>
        <time>2018-12-29T20:24:55Z</time>
      </trkpt>
      <trkpt lat="36.716100" lon="-118.902720">
        <ele>2160.159</ele>
        <time>2018-12-29T20:25:15Z</time>
      </trkpt>
      <trkpt lat="36.716090" lon="-118.902650">
        <ele>2161.049</ele>
        <time>2018-12-29T20:25:35Z</time>
      </trkpt>
      <trkpt lat="36.716090" lon="-118.902530">
        <ele>2161.543</ele>
        <time>2018-12-29T20:25:55Z</time>
      </trkpt>
      <trkpt lat="36.716090" lon="-118.902400">
        <ele>2161.883</ele>
        <time>2018-12-29T20:26:15Z</time>
      </trkpt>
      <trkpt lat="36.716110" lon="-118.902280">
        <ele>2162.329</ele>
        <time>2018-12-29T20:26:35Z</time>
      </trkpt>
      <trkpt lat="36.716120" lon="-118.902210">
        <ele>2162.438</ele>
        <time>2018-12-29T20:26:55Z</time>
      </trkpt>
      <trkpt lat="36.716140" lon="-118.902130">
        <ele>2162.825</ele>
        <time>2018-12-29T20:27:15Z</time>
      </trkpt>
      <trkpt lat="36.716160" lon="-118.902060">
        <ele>2163.026</ele>
        <time>2018-12-29T20:27:35Z</time>
      </trkpt>
      <trkpt lat="36.716180" lon="-118.902010">
        <ele>2163.208</ele>
        <time>2018-12-29T20:27:55Z</time>
      </trkpt>
      <trkpt lat="36.716220" lon="-118.901920">
        <ele>2163.508</ele>
        <time>2018-12-29T20:28:15Z</time>
      </trkpt>
      <trkpt lat="36.716270" lon="-118.901820">
        <ele>2164.095</ele>
        <time>2018-12-29T20:28:35Z</time>
      </trkpt>
      <trkpt lat="36.716310" lon="-118.901760">
        <ele>2164.393</ele>
        <time>2018-12-29T20:28:55Z</time>
      </trkpt>
      <trkpt lat="36.716360" lon="-118.901700">
        <ele>2164.748</ele>
        <time>2018-12-29T20:29:15Z</time>
      </trkpt>
      <trkpt lat="36.716400" lon="-118.901650">
        <ele>2164.938</ele>
        <time>2018-12-29T20:29:35Z</time>
      </trkpt>
      <trkpt lat="36.716460" lon="-118.901580">
        <ele>2165.262</ele>
        <time>2018-12-29T20:29:55Z</time>
      </trkpt>
      <trkpt lat="36.716540" lon="-118.901520">
        <ele>2165.712</ele>
        <time>2018-12-29T20:30:15Z</time>
      </trkpt>
      <trkpt lat="36.716610" lon="-118.901460">
        <ele>2165.918</ele>
        <time>2018-12-29T20:30:35Z</time>
      </trkpt>
      <trkpt lat="36.716650" lon="-118.901440">
        <ele>2166.177</ele>
        <time>2018-12-29T20:30:55Z</time>
      </trkpt>
      <trkpt lat="36.716710" lon="-118.901410">
        <ele>2166.516</ele>
        <time>2018-12-29T20:31:15Z</time>
      </trkpt>
      <trkpt lat="36.716790" lon="-118.901380">
        <ele>2167.076</ele>
        <time>2018-12-29T20:31:35Z</time>
      </trkpt>
      <trkpt lat="36.716850" lon="-118.901360">
        <ele>2167.513</ele>
        <time>2018-12-29T20:31:55Z</time>
      </trkpt>
      <trkpt lat="36.716920" lon="-118.901340">
        <ele>2168.208</ele>
        <time>2018-12-29T20:32:15Z</time>
      </trkpt>
      <trkpt lat="36.716980" lon="-118.901330">
        <ele>2168.874</ele>
        <time>2018-12-29T20:32:35Z</time>
      </trkpt>
      <trkpt lat="36.717160" lon="-118.901320">
        <ele>2170.662</ele>
        <time>2018-12-29T20:32:55Z</time>
      </trkpt>
      <trkpt lat="36.717380" lon="-118.901300">
        <ele>2171.817</ele>
        <time>2018-12-29T20:33:15Z</time>
      </trkpt>
      <trkpt lat="36.717470" lon="-118.901290">
        <ele>2171.937</ele>
        <time>2018-12-29T20:33:35Z</time>
      </trkpt>
      <trkpt lat="36.717540" lon="-118.901270">
        <ele>2172.011</ele>
        <time>2018-12-29T20:33:55Z</time>
      </trkpt>
      <trkpt lat="36.717600" lon="-118.901260">
        <ele>2172.261</ele>
        <time>2018-12-29T20:34:15Z</time>
      </trkpt>
      <trkpt lat="36.717670" lon="-118.901220">
        <ele>2172.227</ele>
        <time>2018-12-29T20:34:35Z</time>
      </trkpt>
      <trkpt lat="36.717740" lon="-118.901190">
        <ele>2171.676</ele>
        <time>2018-12-29T20:34:55Z</time>
      </trkpt>
      <trkpt lat="36.717810" lon="-118.901150">
        <ele>2171.477</ele>
        <time>2018-12-29T20:35:15Z</time>
      </trkpt>
      <trkpt lat="36.717890" lon="-118.901100">
        <ele>2171.561</ele>
        <time>2018-12-29T20:35:35Z</time>
      </trkpt>
      <trkpt lat="36.717930" lon="-118.901060">
        <ele>2171.727</ele>
        <time>2018-12-29T20:35:55Z</time>
      </trkpt>
      <trkpt lat="36.718000" lon="-118.901010">
        <ele>2170.608</ele>
        <time>2018-12-29T20:36:15Z</time>
      </trkpt>
      <trkpt lat="36.718050" lon="-118.900960">
        <ele>2170.480</ele>
        <time>2018-12-29T20:36:35Z</time>
      </trkpt>
      <trkpt lat="36.718100" lon="-118.900900">
        <ele>2170.578</ele>
        <time>2018-12-29T20:36:55Z</time>
      </trkpt>
      <trkpt lat="36.718150" lon="-118.900850">
        <ele>2170.523</ele>
        <time>2018-12-29T20:37:15Z</time>
      </trkpt>
      <trkpt lat="36.718200" lon="-118.900790">
        <ele>2170.883</ele>
        <time>2018-12-29T20:37:35Z</time>
      </trkpt>
      <trkpt lat="36.718250" lon="-118.900700">
        <ele>2171.247</ele>
        <time>2018-12-29T20:37:55Z</time>
      </trkpt>
      <trkpt lat="36.718310" lon="-118.900600">
        <ele>2171.187</ele>
        <time>2018-12-29T20:38:15Z</time>
      </trkpt>
      <trkpt lat="36.718350" lon="-118.900510">
        <ele>2172.053</ele>
        <time>2018-12-29T20:38:35Z</time>
      </trkpt>
      <trkpt lat="36.718420" lon="-118.900380">
        <ele>2173.182</ele>
        <time>2018-12-29T20:38:55Z</time>
      </trkpt>
      <trkpt lat="36.718590" lon="-118.900010">
        <ele>2174.298</ele>
        <time>2018-12-29T20:39:15Z</time>
      </trkpt>
      <trkpt lat="36.718740" lon="-118.899670">
        <ele>2176.015</ele>
        <time>2018-12-29T20:39:35Z</time>
      </trkpt>
      <trkpt lat="36.718890" lon="-118.899350">
        <ele>2175.626</ele>
        <time>2018-12-29T20:39:55Z</time>
      </trkpt>
      <trkpt lat="36.719060" lon="-118.898980">
        <ele>2175.908</ele>
        <time>2018-12-29T20:40:15Z</time>
      </trkpt>
      <trkpt lat="36.719200" lon="-118.898660">
        <ele>2176.092</ele>
        <time>2018-12-29T20:40:35Z</time>
      </trkpt>
      <trkpt lat="36.719270" lon="-118.898500">
        <ele>2176.780</ele>
        <time>2018-12-29T20:40:55Z</time>
      </trkpt>
      <trkpt lat="36.719320" lon="-118.898400">
        <ele>2176.635</ele>
        <time>2018-12-29T20:41:15Z</time>
      </trkpt>
      <trkpt lat="36.719360" lon="-118.898290">
        <ele>2176.985</ele>
        <time>2018-12-29T20:41:35Z</time>
      </trkpt>
      <trkpt lat="36.719390" lon="-118.898210">
        <ele>2177.489</ele>
        <time>2018-12-29T20:41:55Z</time>
      </trkpt>
      <trkpt lat="36.719400" lon="-118.898170">
        <ele>2177.979</ele>
        <time>2018-12-29T20:42:15Z</time>
      </trkpt>
      <trkpt lat="36.719410" lon="-118.898120">
        <ele>2178.725</ele>
        <time>2018-12-29T20:42:35Z</time>
      </trkpt>
      <trkpt lat="36.719420" lon="-118.898020">
        <ele>2180.464</ele>
        <time>2018-12-29T20:42:55Z</time>
      </trkpt>
      <trkpt lat="36.719430" lon="-118.897980">
        <ele>2181.072</ele>
        <time>2018-12-29T20:43:15Z</time>
      </trkpt>
      <trkpt lat="36.719440" lon="-118.897920">
        <ele>2182.113</ele>
        <time>2018-12-29T20:43:35Z</time>
      </trkpt>
      <trkpt lat="36.719440" lon="-118.897840">
        <ele>2183.314</ele>
        <time>2018-12-29T20:43:55Z</time>
      </trkpt>
      <trkpt lat="36.719440" lon="-118.897740">
        <ele>2184.808</ele>
        <time>2018-12-29T20:44:15Z</time>
      </trkpt>
      <trkpt lat="36.719420" lon="-118.897620">
        <ele>2186.780</ele>
        <time>2018-12-29T20:44:35Z</time>
      </trkpt>
      <trkpt lat="36.719390" lon="-118.897540">
        <ele>2187.318</ele>
        <time>2018-12-29T20:44:55Z</time>
      </trkpt>
      <trkpt lat="36.719360" lon="-118.897450">
        <ele>2187.983</ele>
        <time>2018-12-29T20:45:15Z</time>
      </trkpt>
      <trkpt lat="36.719310" lon="-118.897350">
        <ele>2188.723</ele>
        <time>2018-12-29T20:45:35Z</time>
      </trkpt>
      <trkpt lat="36.719280" lon="-118.897290">
        <ele>2188.887</ele>
        <time>2018-12-29T20:45:55Z</time>
      </trkpt>
      <trkpt lat="36.719250" lon="-118.897230">
        <ele>2188.917</ele>
        <time>2018-12-29T20:46:15Z</time>
      </trkpt>
      <trkpt lat="36.719170" lon="-118.897130">
        <ele>2189.223</ele>
        <time>2018-12-29T20:46:35Z</time>
      </trkpt>
      <trkpt lat="36.719100" lon="-118.897060">
        <ele>2189.452</ele>
        <time>2018-12-29T20:46:55Z</time>
      </trkpt>
      <trkpt lat="36.719030" lon="-118.897000">
        <ele>2189.643</ele>
        <time>2018-12-29T20:47:15Z</time>
      </trkpt>
      <trkpt lat="36.718980" lon="-118.896970">
        <ele>2189.664</ele>
        <time>2018-12-29T20:47:35Z</time>
      </trkpt>
      <trkpt lat="36.718940" lon="-118.896950">
        <ele>2189.710</ele>
        <time>2018-12-29T20:47:55Z</time>
      </trkpt>
      <trkpt lat="36.718890" lon="-118.896930">
        <ele>2189.708</ele>
        <time>2018-12-29T20:48:15Z</time>
      </trkpt>
      <trkpt lat="36.718840" lon="-118.896910">
        <ele>2189.867</ele>
        <time>2018-12-29T20:48:35Z</time>
      </trkpt>
      <trkpt lat="36.718770" lon="-118.896890">
        <ele>2189.975</ele>
        <time>2018-12-29T20:48:55Z</time>
      </trkpt>
      <trkpt lat="36.718710" lon="-118.896890">
        <ele>2190.120</ele>
        <time>2018-12-29T20:49:15Z</time>
      </trkpt>
      <trkpt lat="36.718610" lon="-118.896880">
        <ele>2190.450</ele>
        <time>2018-12-29T20:49:35Z</time>
      </trkpt>
      <trkpt lat="36.718520" lon="-118.896880">
        <ele>2190.774</ele>
        <time>2018-12-29T20:49:55Z</time>
      </trkpt>
      <trkpt lat="36.718420" lon="-118.896880">
        <ele>2191.074</ele>
        <time>2018-12-29T20:50:15Z</time>
      </trkpt>
      <trkpt lat="36.718290" lon="-118.896880">
        <ele>2191.340</ele>
        <time>2018-12-29T20:50:35Z</time>
      </trkpt>
      <trkpt lat="36.717810" lon="-118.896900">
        <ele>2193.019</ele>
        <time>2018-12-29T20:50:55Z</time>
      </trkpt>
      <trkpt lat="36.717720" lon="-118.896910">
        <ele>2193.415</ele>
        <time>2018-12-29T20:51:15Z</time>
      </trkpt>
      <trkpt lat="36.717580" lon="-118.896910">
        <ele>2193.865</ele>
        <time>2018-12-29T20:51:35Z</time>
      </trkpt>
      <trkpt lat="36.717510" lon="-118.896900">
        <ele>2193.811</ele>
        <time>2018-12-29T20:51:55Z</time>
      </trkpt>
      <trkpt lat="36.717450" lon="-118.896890">
        <ele>2193.808</ele>
        <time>2018-12-29T20:52:15Z</time>
      </trkpt>
      <trkpt lat="36.717360" lon="-118.896870">
        <ele>2193.874</ele>
        <time>2018-12-29T20:52:35Z</time>
      </trkpt>
      <trkpt lat="36.717240" lon="-118.896830">
        <ele>2193.552</ele>
        <time>2018-12-29T20:52:55Z</time>
      </trkpt>
      <trkpt lat="36.717170" lon="-118.896800">
        <ele>2193.377</ele>
        <time>2018-12-29T20:53:15Z</time>
      </trkpt>
      <trkpt lat="36.717070" lon="-118.896760">
        <ele>2193.127</ele>
        <time>2018-12-29T20:53:35Z</time>
      </trkpt>
      <trkpt lat="36.716970" lon="-118.896710">
        <ele>2193.211</ele>
        <time>2018-12-29T20:53:55Z</time>
      </trkpt>
      <trkpt lat="36.716730" lon="-118.896580">
        <ele>2193.161</ele>
        <time>2018-12-29T20:54:15Z</time>
      </trkpt>
      <trkpt lat="36.716380" lon="-118.896400">
        <ele>2193.327</ele>
        <time>2018-12-29T20:54:35Z</time>
      </trkpt>
      <trkpt lat="36.715930" lon="-118.896160">
        <ele>2193.516</ele>
        <time>2018-12-29T20:54:55Z</time>
      </trkpt>
      <trkpt lat="36.715470" lon="-118.895920">
        <ele>2192.723</ele>
        <time>2018-12-29T20:55:15Z</time>
      </trkpt>
      <trkpt lat="36.715410" lon="-118.895880">
        <ele>2192.383</ele>
        <time>2018-12-29T20:55:35Z</time>
      </trkpt>
      <trkpt lat="36.715270" lon="-118.895790">
        <ele>2191.311</ele>
        <time>2018-12-29T20:55:55Z</time>
      </trkpt>
      <trkpt lat="36.715170" lon="-118.895720">
        <ele>2190.508</ele>
        <time>2018-12-29T20:56:15Z</time>
      </trkpt>
      <trkpt lat="36.715050" lon="-118.895630">
        <ele>2189.965</ele>
        <time>2018-12-29T20:56:35Z</time>
      </trkpt>
      <trkpt lat="36.714990" lon="-118.895580">
        <ele>2189.683</ele>
        <time>2018-12-29T20:56:55Z</time>
      </trkpt>
      <trkpt lat="36.714940" lon="-118.895530">
        <ele>2189.268</ele>
        <time>2018-12-29T20:57:15Z</time>
      </trkpt>
      <trkpt lat="36.714860" lon="-118.895450">
        <ele>2188.678</ele>
        <time>2018-12-29T20:57:35Z</time>
      </trkpt>
      <trkpt lat="36.714790" lon="-118.895370">
        <ele>2188.552</ele>
        <time>2018-12-29T20:57:55Z</time>
      </trkpt>
      <trkpt lat="36.714690" lon="-118.895260">
        <ele>2188.632</ele>
        <time>2018-12-29T20:58:15Z</time>
      </trkpt>
      <trkpt lat="36.714620" lon="-118.895180">
        <ele>2188.728</ele>
        <time>2018-12-29T20:58:35Z</time>
      </trkpt>
      <trkpt lat="36.714570" lon="-118.895110">
        <ele>2188.737</ele>
        <time>2018-12-29T20:58:55Z</time>
      </trkpt>
      <trkpt lat="36.714480" lon="-118.895000">
        <ele>2189.311</ele>
        <time>2018-12-29T20:59:15Z</time>
      </trkpt>
      <trkpt lat="36.714380" lon="-118.894830">
        <ele>2189.721</ele>
        <time>2018-12-29T20:59:35Z</time>
      </trkpt>
      <trkpt lat="36.714290" lon="-118.894670">
        <ele>2190.103</ele>
        <time>2018-12-29T20:59:55Z</time>
      </trkpt>
      <trkpt lat="36.714190" lon="-118.894490">
        <ele>2190.708</ele>
        <time>2018-12-29T21:00:15Z</time>
      </trkpt>
      <trkpt lat="36.714160" lon="-118.894410">
        <ele>2190.764</ele>
        <time>2018-12-29T21:00:35Z</time>
      </trkpt>
      <trkpt lat="36.714110" lon="-118.894300">
        <ele>2191.052</ele>
        <time>2018-12-29T21:00:55Z</time>
      </trkpt>
      <trkpt lat="36.714050" lon="-118.894140">
        <ele>2191.017</ele>
        <time>2018-12-29T21:01:15Z</time>
      </trkpt>
      <trkpt lat="36.714000" lon="-118.893980">
        <ele>2190.837</ele>
        <time>2018-12-29T21:01:35Z</time>
      </trkpt>
      <trkpt lat="36.713950" lon="-118.893800">
        <ele>2190.411</ele>
        <time>2018-12-29T21:01:55Z</time>
      </trkpt>
      <trkpt lat="36.713930" lon="-118.893730">
        <ele>2190.351</ele>
        <time>2018-12-29T21:02:15Z</time>
      </trkpt>
      <trkpt lat="36.713910" lon="-118.893610">
        <ele>2190.047</ele>
        <time>2018-12-29T21:02:35Z</time>
      </trkpt>
      <trkpt lat="36.713890" lon="-118.893530">
        <ele>2190.046</ele>
        <time>2018-12-29T21:02:55Z</time>
      </trkpt>
      <trkpt lat="36.713870" lon="-118.893380">
        <ele>2189.934</ele>
        <time>2018-12-29T21:03:15Z</time>
      </trkpt>
      <trkpt lat="36.713840" lon="-118.893230">
        <ele>2190.255</ele>
        <time>2018-12-29T21:03:35Z</time>
      </trkpt>
      <trkpt lat="36.713830" lon="-118.893080">
        <ele>2190.210</ele>
        <time>2018-12-29T21:03:55Z</time>
      </trkpt>
      <trkpt lat="36.713820" lon="-118.892920">
        <ele>2190.308</ele>
        <time>2018-12-29T21:04:15Z</time>
      </trkpt>
      <trkpt lat="36.713820" lon="-118.892730">
        <ele>2190.516</ele>
        <time>2018-12-29T21:04:35Z</time>
      </trkpt>
      <trkpt lat="36.713820" lon="-118.892460">
        <ele>2191.224</ele>
        <time>2018-12-29T21:04:55Z</time>
      </trkpt>
      <trkpt lat="36.713820" lon="-118.892260">
        <ele>2192.989</ele>
        <time>2018-12-29T21:05:15Z</time>
      </trkpt>
      <trkpt lat="36.713820" lon="-118.892100">
        <ele>2195.099</ele>
        <time>2018-12-29T21:05:35Z</time>
      </trkpt>
      <trkpt lat="36.713810" lon="-118.891970">
        <ele>2195.873</ele>
        <time>2018-12-29T21:05:55Z</time>
      </trkpt>
      <trkpt lat="36.713800" lon="-118.891840">
        <ele>2196.313</ele>
        <time>2018-12-29T21:06:15Z</time>
      </trkpt>
      <trkpt lat="36.713760" lon="-118.891690">
        <ele>2197.479</ele>
        <time>2018-12-29T21:06:35Z</time>
      </trkpt>
      <trkpt lat="36.713740" lon="-118.891600">
        <ele>2197.858</ele>
        <time>2018-12-29T21:06:55Z</time>
      </trkpt>
      <trkpt lat="36.713710" lon="-118.891540">
        <ele>2198.255</ele>
        <time>2018-12-29T21:07:15Z</time>
      </trkpt>
      <trkpt lat="36.713690" lon="-118.891480">
        <ele>2198.307</ele>
        <time>2018-12-29T21:07:35Z</time>
      </trkpt>
      <trkpt lat="36.713660" lon="-118.891420">
        <ele>2198.617</ele>
        <time>2018-12-29T21:07:55Z</time>
      </trkpt>
      <trkpt lat="36.713640" lon="-118.891380">
        <ele>2198.708</ele>
        <time>2018-12-29T21:08:15Z</time>
      </trkpt>
      <trkpt lat="36.713600" lon="-118.891320">
        <ele>2199.168</ele>
        <time>2018-12-29T21:08:35Z</time>
      </trkpt>
      <trkpt lat="36.713560" lon="-118.891260">
        <ele>2199.536</ele>
        <time>2018-12-29T21:08:55Z</time>
      </trkpt>
      <trkpt lat="36.713510" lon="-118.891190">
        <ele>2199.751</ele>
        <time>2018-12-29T21:09:15Z</time>
      </trkpt>
      <trkpt lat="36.713450" lon="-118.891110">
        <ele>2199.951</ele>
        <time>2018-12-29T21:09:35Z</time>
      </trkpt>
      <trkpt lat="36.713390" lon="-118.891060">
        <ele>2200.215</ele>
        <time>2018-12-29T21:09:55Z</time>
      </trkpt>
      <trkpt lat="36.713340" lon="-118.891020">
        <ele>2200.495</ele>
        <time>2018-12-29T21:10:15Z</time>
      </trkpt>
      <trkpt lat="36.713240" lon="-118.890940">
        <ele>2200.591</ele>
        <time>2018-12-29T21:10:35Z</time>
      </trkpt>
      <trkpt lat="36.713150" lon="-118.890880">
        <ele>2200.670</ele>
        <time>2018-12-29T21:10:55Z</time>
      </trkpt>
      <trkpt lat="36.713100" lon="-118.890860">
        <ele>2200.718</ele>
        <time>2018-12-29T21:11:15Z</time>
      </trkpt>
      <trkpt lat="36.713040" lon="-118.890830">
        <ele>2200.998</ele>
        <time>2018-12-29T21:11:35Z</time>
      </trkpt>
      <trkpt lat="36.712960" lon="-118.890800">
        <ele>2201.217</ele>
        <time>2018-12-29T21:11:55Z</time>
      </trkpt>
      <trkpt lat="36.712660" lon="-118.890700">
        <ele>2202.308</ele>
        <time>2018-12-29T21:12:15Z</time>
      </trkpt>
      <trkpt lat="36.712230" lon="-118.890560">
        <ele>2203.374</ele>
        <time>2018-12-29T21:12:35Z</time>
      </trkpt>
      <trkpt lat="36.712100" lon="-118.890510">
        <ele>2203.522</ele>
        <time>2018-12-29T21:12:55Z</time>
      </trkpt>
      <trkpt lat="36.711640" lon="-118.890360">
        <ele>2203.657</ele>
        <time>2018-12-29T21:13:15Z</time>
      </trkpt>
      <trkpt lat="36.711290" lon="-118.890250">
        <ele>2203.437</ele>
        <time>2018-12-29T21:13:35Z</time>
      </trkpt>
      <trkpt lat="36.711180" lon="-118.890210">
        <ele>2203.181</ele>
        <time>2018-12-29T21:13:55Z</time>
      </trkpt>
      <trkpt lat="36.710890" lon="-118.890110">
        <ele>2202.431</ele>
        <time>2018-12-29T21:14:15Z</time>
      </trkpt>
      <trkpt lat="36.710780" lon="-118.890060">
        <ele>2202.377</ele>
        <time>2018-12-29T21:14:35Z</time>
      </trkpt>
      <trkpt lat="36.710610" lon="-118.889990">
        <ele>2202.246</ele>
        <time>2018-12-29T21:14:55Z</time>
      </trkpt>
      <trkpt lat="36.710500" lon="-118.889940">
        <ele>2201.991</ele>
        <time>2018-12-29T21:15:15Z</time>
      </trkpt>
      <trkpt lat="36.710350" lon="-118.889860">
        <ele>2201.481</ele>
        <time>2018-12-29T21:15:35Z</time>
      </trkpt>
      <trkpt lat="36.710240" lon="-118.889790">
        <ele>2201.419</ele>
        <time>2018-12-29T21:15:55Z</time>
      </trkpt>
      <trkpt lat="36.710150" lon="-118.889730">
        <ele>2201.408</ele>
        <time>2018-12-29T21:16:15Z</time>
      </trkpt>
      <trkpt lat="36.710030" lon="-118.889640">
        <ele>2201.592</ele>
        <time>2018-12-29T21:16:35Z</time>
      </trkpt>
      <trkpt lat="36.709930" lon="-118.889550">
        <ele>2201.510</ele>
        <time>2018-12-29T21:16:55Z</time>
      </trkpt>
      <trkpt lat="36.709840" lon="-118.889480">
        <ele>2201.785</ele>
        <time>2018-12-29T21:17:15Z</time>
      </trkpt>
      <trkpt lat="36.709660" lon="-118.889280">
        <ele>2202.415</ele>
        <time>2018-12-29T21:17:35Z</time>
      </trkpt>
      <trkpt lat="36.709590" lon="-118.889210">
        <ele>2202.819</ele>
        <time>2018-12-29T21:17:55Z</time>
      </trkpt>
      <trkpt lat="36.709510" lon="-118.889130">
        <ele>2203.329</ele>
        <time>2018-12-29T21:18:15Z</time>
      </trkpt>
      <trkpt lat="36.709420" lon="-118.889010">
        <ele>2204.075</ele>
        <time>2018-12-29T21:18:35Z</time>
      </trkpt>
      <trkpt lat="36.709330" lon="-118.888890">
        <ele>2205.094</ele>
        <time>2018-12-29T21:18:55Z</time>
      </trkpt>
      <trkpt lat="36.709250" lon="-118.888770">
        <ele>2206.341</ele>
        <time>2018-12-29T21:19:15Z</time>
      </trkpt>
      <trkpt lat="36.709190" lon="-118.888670">
        <ele>2207.381</ele>
        <time>2018-12-29T21:19:35Z</time>
      </trkpt>
      <trkpt lat="36.709140" lon="-118.888580">
        <ele>2208.109</ele>
        <time>2018-12-29T21:19:55Z</time>
      </trkpt>
      <trkpt lat="36.709090" lon="-118.888480">
        <ele>2209.108</ele>
        <time>2018-12-29T21:20:15Z</time>
      </trkpt>
      <trkpt lat="36.709040" lon="-118.888390">
        <ele>2209.797</ele>
        <time>2018-12-29T21:20:35Z</time>
      </trkpt>
      <trkpt lat="36.709000" lon="-118.888300">
        <ele>2209.925</ele>
        <time>2018-12-29T21:20:55Z</time>
      </trkpt>
      <trkpt lat="36.708960" lon="-118.888200">
        <ele>2210.030</ele>
        <time>2018-12-29T21:21:15Z</time>
      </trkpt>
      <trkpt lat="36.708790" lon="-118.887740">
        <ele>2212.440</ele>
        <time>2018-12-29T21:21:35Z</time>
      </trkpt>
      <trkpt lat="36.708690" lon="-118.887420">
        <ele>2214.984</ele>
        <time>2018-12-29T21:21:55Z</time>
      </trkpt>
      <trkpt lat="36.708580" lon="-118.887100">
        <ele>2217.824</ele>
        <time>2018-12-29T21:22:15Z</time>
      </trkpt>
      <trkpt lat="36.708470" lon="-118.886740">
        <ele>2217.510</ele>
        <time>2018-12-29T21:22:35Z</time>
      </trkpt>
      <trkpt lat="36.708440" lon="-118.886650">
        <ele>2218.689</ele>
        <time>2018-12-29T21:22:55Z</time>
      </trkpt>
      <trkpt lat="36.708390" lon="-118.886540">
        <ele>2220.087</ele>
        <time>2018-12-29T21:23:15Z</time>
      </trkpt>
      <trkpt lat="36.708370" lon="-118.886480">
        <ele>2220.742</ele>
        <time>2018-12-29T21:23:35Z</time>
      </trkpt>
      <trkpt lat="36.708320" lon="-118.886370">
        <ele>2221.826</ele>
        <time>2018-12-29T21:23:55Z</time>
      </trkpt>
      <trkpt lat="36.708270" lon="-118.886310">
        <ele>2222.008</ele>
        <time>2018-12-29T21:24:15Z</time>
      </trkpt>
      <trkpt lat="36.708210" lon="-118.886240">
        <ele>2222.061</ele>
        <time>2018-12-29T21:24:35Z</time>
      </trkpt>
      <trkpt lat="36.708150" lon="-118.886180">
        <ele>2221.939</ele>
        <time>2018-12-29T21:24:55Z</time>
      </trkpt>
      <trkpt lat="36.708100" lon="-118.886130">
        <ele>2221.934</ele>
        <time>2018-12-29T21:25:15Z</time>
      </trkpt>
      <trkpt lat="36.708060" lon="-118.886110">
        <ele>2221.794</ele>
        <time>2018-12-29T21:25:35Z</time>
      </trkpt>
      <trkpt lat="36.707970" lon="-118.886060">
        <ele>2221.698</ele>
        <time>2018-12-29T21:25:55Z</time>
      </trkpt>
      <trkpt lat="36.707890" lon="-118.886020">
        <ele>2221.848</ele>
        <time>2018-12-29T21:26:15Z</time>
      </trkpt>
      <trkpt lat="36.707790" lon="-118.885990">
        <ele>2222.594</ele>
        <time>2018-12-29T21:26:35Z</time>
      </trkpt>
      <trkpt lat="36.707740" lon="-118.885980">
        <ele>2222.833</ele>
        <time>2018-12-29T21:26:55Z</time>
      </trkpt>
      <trkpt lat="36.707670" lon="-118.885960">
        <ele>2223.495</ele>
        <time>2018-12-29T21:27:15Z</time>
      </trkpt>
      <trkpt lat="36.707560" lon="-118.885940">
        <ele>2224.149</ele>
        <time>2018-12-29T21:27:35Z</time>
      </trkpt>
      <trkpt lat="36.707450" lon="-118.885920">
        <ele>2224.923</ele>
        <time>2018-12-29T21:27:55Z</time>
      </trkpt>
      <trkpt lat="36.707380" lon="-118.885900">
        <ele>2225.508</ele>
        <time>2018-12-29T21:28:15Z</time>
      </trkpt>
      <trkpt lat="36.707280" lon="-118.885870">
        <ele>2225.912</ele>
        <time>2018-12-29T21:28:35Z</time>
      </trkpt>
      <trkpt lat="36.707210" lon="-118.885840">
        <ele>2226.260</ele>
        <time>2018-12-29T21:28:55Z</time>
      </trkpt>
      <trkpt lat="36.707140" lon="-118.885810">
        <ele>2226.475</ele>
        <time>2018-12-29T21:29:15Z</time>
      </trkpt>
      <trkpt lat="36.707080" lon="-118.885770">
        <ele>2226.725</ele>
        <time>2018-12-29T21:29:35Z</time>
      </trkpt>
      <trkpt lat="36.707040" lon="-118.885740">
        <ele>2226.799</ele>
        <time>2018-12-29T21:29:55Z</time>
      </trkpt>
      <trkpt lat="36.707010" lon="-118.885710">
        <ele>2226.799</ele>
        <time>2018-12-29T21:30:15Z</time>
      </trkpt>
      <trkpt lat="36.706970" lon="-118.885670">
        <ele>2227.065</ele>
        <time>2018-12-29T21:30:35Z</time>
      </trkpt>
      <trkpt lat="36.706910" lon="-118.885610">
        <ele>2227.574</ele>
        <time>2018-12-29T21:30:55Z</time>
      </trkpt>
      <trkpt lat="36.706840" lon="-118.885510">
        <ele>2228.391</ele>
        <time>2018-12-29T21:31:15Z</time>
      </trkpt>
      <trkpt lat="36.706760" lon="-118.885410">
        <ele>2228.781</ele>
        <time>2018-12-29T21:31:35Z</time>
      </trkpt>
      <trkpt lat="36.706600" lon="-118.885200">
        <ele>2230.919</ele>
        <time>2018-12-29T21:31:55Z</time>
      </trkpt>
      <trkpt lat="36.706560" lon="-118.885130">
        <ele>2231.708</ele>
        <time>2018-12-29T21:32:15Z</time>
      </trkpt>
      <trkpt lat="36.706500" lon="-118.885050">
        <ele>2233.742</ele>
        <time>2018-12-29T21:32:35Z</time>
      </trkpt>
      <trkpt lat="36.706390" lon="-118.884870">
        <ele>2238.880</ele>
        <time>2018-12-29T21:32:55Z</time>
      </trkpt>
      <trkpt lat="36.706220" lon="-118.884640">
        <ele>2240.895</ele>
        <time>2018-12-29T21:33:15Z</time>
      </trkpt>
      <trkpt lat="36.706090" lon="-118.884460">
        <ele>2241.035</ele>
        <time>2018-12-29T21:33:35Z</time>
      </trkpt>
      <trkpt lat="36.705980" lon="-118.884310">
        <ele>2240.989</ele>
        <time>2018-12-29T21:33:55Z</time>
      </trkpt>
      <trkpt lat="36.705840" lon="-118.884120">
        <ele>2240.559</ele>
        <time>2018-12-29T21:34:15Z</time>
      </trkpt>
      <trkpt lat="36.705780" lon="-118.884020">
        <ele>2240.625</ele>
        <time>2018-12-29T21:34:35Z</time>
      </trkpt>
      <trkpt lat="36.705690" lon="-118.883870">
        <ele>2240.954</ele>
        <time>2018-12-29T21:34:55Z</time>
      </trkpt>
      <trkpt lat="36.705640" lon="-118.883770">
        <ele>2241.748</ele>
        <time>2018-12-29T21:35:15Z</time>
      </trkpt>
      <trkpt lat="36.705580" lon="-118.883630">
        <ele>2243.461</ele>
        <time>2018-12-29T21:35:35Z</time>
      </trkpt>
      <trkpt lat="36.705530" lon="-118.883540">
        <ele>2244.717</ele>
        <time>2018-12-29T21:35:55Z</time>
      </trkpt>
      <trkpt lat="36.705480" lon="-118.883410">
        <ele>2246.208</ele>
        <time>2018-12-29T21:36:15Z</time>
      </trkpt>
      <trkpt lat="36.705440" lon="-118.883300">
        <ele>2246.587</ele>
        <time>2018-12-29T21:36:35Z</time>
      </trkpt>
      <trkpt lat="36.705400" lon="-118.883210">
        <ele>2246.245</ele>
        <time>2018-12-29T21:36:55Z</time>
      </trkpt>
      <trkpt lat="36.705360" lon="-118.883100">
        <ele>2245.910</ele>
        <time>2018-12-29T21:37:15Z</time>
      </trkpt>
      <trkpt lat="36.705310" lon="-118.882950">
        <ele>2246.420</ele>
        <time>2018-12-29T21:37:35Z</time>
      </trkpt>
      <trkpt lat="36.705290" lon="-118.882850">
        <ele>2247.014</ele>
        <time>2018-12-29T21:37:55Z</time>
      </trkpt>
      <trkpt lat="36.705250" lon="-118.882700">
        <ele>2247.714</ele>
        <time>2018-12-29T21:38:15Z</time>
      </trkpt>
      <trkpt lat="36.705230" lon="-118.882620">
        <ele>2248.110</ele>
        <time>2018-12-29T21:38:35Z</time>
      </trkpt>
      <trkpt lat="36.705180" lon="-118.882370">
        <ele>2249.249</ele>
        <time>2018-12-29T21:38:55Z</time>
      </trkpt>
      <trkpt lat="36.705160" lon="-118.882220">
        <ele>2250.221</ele>
        <time>2018-12-29T21:39:15Z</time>
      </trkpt>
      <trkpt lat="36.705140" lon="-118.882060">
        <ele>2251.041</ele>
        <time>2018-12-29T21:39:35Z</time>
      </trkpt>
      <trkpt lat="36.705120" lon="-118.881910">
        <ele>2251.805</ele>
        <time>2018-12-29T21:39:55Z</time>
      </trkpt>
      <trkpt lat="36.705100" lon="-118.881780">
        <ele>2252.408</ele>
        <time>2018-12-29T21:40:15Z</time>
      </trkpt>
      <trkpt lat="36.705080" lon="-118.881710">
        <ele>2252.655</ele>
        <time>2018-12-29T21:40:35Z</time>
      </trkpt>
      <trkpt lat="36.705060" lon="-118.881620">
        <ele>2252.943</ele>
        <time>2018-12-29T21:40:55Z</time>
      </trkpt>
      <trkpt lat="36.705040" lon="-118.881550">
        <ele>2253.018</ele>
        <time>2018-12-29T21:41:15Z</time>
      </trkpt>
      <trkpt lat="36.705020" lon="-118.881490">
        <ele>2253.168</ele>
        <time>2018-12-29T21:41:35Z</time>
      </trkpt>
      <trkpt lat="36.704970" lon="-118.881370">
        <ele>2253.082</ele>
        <time>2018-12-29T21:41:55Z</time>
      </trkpt>
      <trkpt lat="36.704940" lon="-118.881300">
        <ele>2252.862</ele>
        <time>2018-12-29T21:42:15Z</time>
      </trkpt>
      <trkpt lat="36.704920" lon="-118.881260">
        <ele>2252.528</ele>
        <time>2018-12-29T21:42:35Z</time>
      </trkpt>
      <trkpt lat="36.704900" lon="-118.881210">
        <ele>2252.657</ele>
        <time>2018-12-29T21:42:55Z</time>
      </trkpt>
      <trkpt lat="36.704870" lon="-118.881160">
        <ele>2252.245</ele>
        <time>2018-12-29T21:43:15Z</time>
      </trkpt>
      <trkpt lat="36.704790" lon="-118.881020">
        <ele>2253.847</ele>
        <time>2018-12-29T21:43:35Z</time>
      </trkpt>
      <trkpt lat="36.704740" lon="-118.880950">
        <ele>2255.611</ele>
        <time>2018-12-29T21:43:55Z</time>
      </trkpt>
      <trkpt lat="36.704670" lon="-118.880840">
        <ele>2258.608</ele>
        <time>2018-12-29T21:44:15Z</time>
      </trkpt>
      <trkpt lat="36.704630" lon="-118.880790">
        <ele>2259.467</ele>
        <time>2018-12-29T21:44:35Z</time>
      </trkpt>
      <trkpt lat="36.704550" lon="-118.880680">
        <ele>2260.685</ele>
        <time>2018-12-29T21:44:55Z</time>
      </trkpt>
      <trkpt lat="36.704520" lon="-118.880630">
        <ele>2260.950</ele>
        <time>2018-12-29T21:45:15Z</time>
      </trkpt>
      <trkpt lat="36.704470" lon="-118.880540">
        <ele>2261.470</ele>
        <time>2018-12-29T21:45:35Z</time>
      </trkpt>
      <trkpt lat="36.704440" lon="-118.880490">
        <ele>2261.584</ele>
        <time>2018-12-29T21:45:55Z</time>
      </trkpt>
      <trkpt lat="36.704410" lon="-118.880430">
        <ele>2261.744</ele>
        <time>2018-12-29T21:46:15Z</time>
      </trkpt>
      <trkpt lat="36.704390" lon="-118.880380">
        <ele>2261.780</ele>
        <time>2018-12-29T21:46:35Z</time>
      </trkpt>
      <trkpt lat="36.704370" lon="-118.880330">
        <ele>2261.619</ele>
        <time>2018-12-29T21:46:55Z</time>
      </trkpt>
      <trkpt lat="36.704350" lon="-118.880250">
        <ele>2261.879</ele>
        <time>2018-12-29T21:47:15Z</time>
      </trkpt>
      <trkpt lat="36.704320" lon="-118.880170">
        <ele>2261.605</ele>
        <time>2018-12-29T21:47:35Z</time>
      </trkpt>
      <trkpt lat="36.704300" lon="-118.880060">
        <ele>2261.825</ele>
        <time>2018-12-29T21:47:55Z</time>
      </trkpt>
      <trkpt lat="36.704270" lon="-118.879840">
        <ele>2262.508</ele>
        <time>2018-12-29T21:48:15Z</time>
      </trkpt>
      <trkpt lat="36.704250" lon="-118.879690">
        <ele>2263.070</ele>
        <time>2018-12-29T21:48:35Z</time>
      </trkpt>
      <trkpt lat="36.704230" lon="-118.879620">
        <ele>2263.068</ele>
        <time>2018-12-29T21:48:55Z</time>
      </trkpt>
      <trkpt lat="36.704220" lon="-118.879570">
        <ele>2263.253</ele>
        <time>2018-12-29T21:49:15Z</time>
      </trkpt>
      <trkpt lat="36.704200" lon="-118.879520">
        <ele>2263.543</ele>
        <time>2018-12-29T21:49:35Z</time>
      </trkpt>
      <trkpt lat="36.704180" lon="-118.879460">
        <ele>2263.987</ele>
        <time>2018-12-29T21:49:55Z</time>
      </trkpt>
      <trkpt lat="36.704160" lon="-118.879400">
        <ele>2264.377</ele>
        <time>2018-12-29T21:50:15Z</time>
      </trkpt>
      <trkpt lat="36.704130" lon="-118.879340">
        <ele>2264.663</ele>
        <time>2018-12-29T21:50:35Z</time>
      </trkpt>
      <trkpt lat="36.704110" lon="-118.879290">
        <ele>2265.192</ele>
        <time>2018-12-29T21:50:55Z</time>
      </trkpt>
      <trkpt lat="36.704080" lon="-118.879250">
        <ele>2265.458</ele>
        <time>2018-12-29T21:51:15Z</time>
      </trkpt>
      <trkpt lat="36.704050" lon="-118.879210">
        <ele>2265.652</ele>
        <time>2018-12-29T21:51:35Z</time>
      </trkpt>
      <trkpt lat="36.704000" lon="-118.879140">
        <ele>2265.917</ele>
        <time>2018-12-29T21:51:55Z</time>
      </trkpt>
      <trkpt lat="36.703940" lon="-118.879070">
        <ele>2266.208</ele>
        <time>2018-12-29T21:52:15Z</time>
      </trkpt>
      <trkpt lat="36.703900" lon="-118.879030">
        <ele>2266.558</ele>
        <time>2018-12-29T21:52:35Z</time>
      </trkpt>
      <trkpt lat="36.703860" lon="-118.879000">
        <ele>2266.856</ele>
        <time>2018-12-29T21:52:55Z</time>
      </trkpt>
      <trkpt lat="36.703810" lon="-118.878960">
        <ele>2267.231</ele>
        <time>2018-12-29T21:53:15Z</time>
      </trkpt>
      <trkpt lat="36.703770" lon="-118.878920">
        <ele>2267.691</ele>
        <time>2018-12-29T21:53:35Z</time>
      </trkpt>
      <trkpt lat="36.703690" lon="-118.878870">
        <ele>2268.285</ele>
        <time>2018-12-29T21:53:55Z</time>
      </trkpt>
      <trkpt lat="36.703550" lon="-118.878760">
        <ele>2272.595</ele>
        <time>2018-12-29T21:54:15Z</time>
      </trkpt>
      <trkpt lat="36.703470" lon="-118.878710">
        <ele>2273.891</ele>
        <time>2018-12-29T21:54:35Z</time>
      </trkpt>
      <trkpt lat="36.703170" lon="-118.878520">
        <ele>2272.060</ele>
        <time>2018-12-29T21:54:55Z</time>
      </trkpt>
      <trkpt lat="36.702920" lon="-118.878360">
        <ele>2272.139</ele>
        <time>2018-12-29T21:55:15Z</time>
      </trkpt>
      <trkpt lat="36.702690" lon="-118.878210">
        <ele>2270.501</ele>
        <time>2018-12-29T21:55:35Z</time>
      </trkpt>
      <trkpt lat="36.702600" lon="-118.878150">
        <ele>2270.021</ele>
        <time>2018-12-29T21:55:55Z</time>
      </trkpt>
      <trkpt lat="36.702530" lon="-118.878100">
        <ele>2269.308</ele>
        <time>2018-12-29T21:56:15Z</time>
      </trkpt>
      <trkpt lat="36.702380" lon="-118.878010">
        <ele>2267.556</ele>
        <time>2018-12-29T21:56:35Z</time>
      </trkpt>
      <trkpt lat="36.702310" lon="-118.877980">
        <ele>2266.654</ele>
        <time>2018-12-29T21:56:55Z</time>
      </trkpt>
      <trkpt lat="36.702220" lon="-118.877950">
        <ele>2265.839</ele>
        <time>2018-12-29T21:57:15Z</time>
      </trkpt>
      <trkpt lat="36.702070" lon="-118.877920">
        <ele>2265.269</ele>
        <time>2018-12-29T21:57:35Z</time>
      </trkpt>
      <trkpt lat="36.702010" lon="-118.877910">
        <ele>2265.553</ele>
        <time>2018-12-29T21:57:55Z</time>
      </trkpt>
      <trkpt lat="36.701960" lon="-118.877910">
        <ele>2265.523</ele>
        <time>2018-12-29T21:58:15Z</time>
      </trkpt>
      <trkpt lat="36.701900" lon="-118.877910">
        <ele>2265.519</ele>
        <time>2018-12-29T21:58:35Z</time>
      </trkpt>
      <trkpt lat="36.701840" lon="-118.877910">
        <ele>2265.578</ele>
        <time>2018-12-29T21:58:55Z</time>
      </trkpt>
      <trkpt lat="36.701790" lon="-118.877920">
        <ele>2265.311</ele>
        <time>2018-12-29T21:59:15Z</time>
      </trkpt>
      <trkpt lat="36.701720" lon="-118.877940">
        <ele>2264.821</ele>
        <time>2018-12-29T21:59:35Z</time>
      </trkpt>
      <trkpt lat="36.701660" lon="-118.877960">
        <ele>2264.403</ele>
        <time>2018-12-29T21:59:55Z</time>
      </trkpt>
      <trkpt lat="36.701600" lon="-118.877980">
        <ele>2264.308</ele>
        <time>2018-12-29T22:00:15Z</time>
      </trkpt>
      <trkpt lat="36.701540" lon="-118.878000">
        <ele>2264.664</ele>
        <time>2018-12-29T22:00:35Z</time>
      </trkpt>
      <trkpt lat="36.701460" lon="-118.878040">
        <ele>2264.742</ele>
        <time>2018-12-29T22:00:55Z</time>
      </trkpt>
      <trkpt lat="36.701290" lon="-118.878130">
        <ele>2266.767</ele>
        <time>2018-12-29T22:01:15Z</time>
      </trkpt>
      <trkpt lat="36.701160" lon="-118.878190">
        <ele>2267.967</ele>
        <time>2018-12-29T22:01:35Z</time>
      </trkpt>
      <trkpt lat="36.701100" lon="-118.878230">
        <ele>2267.411</ele>
        <time>2018-12-29T22:01:55Z</time>
      </trkpt>
      <trkpt lat="36.701040" lon="-118.878260">
        <ele>2267.341</ele>
        <time>2018-12-29T22:02:15Z</time>
      </trkpt>
      <trkpt lat="36.701000" lon="-118.878280">
        <ele>2267.337</ele>
        <time>2018-12-29T22:02:35Z</time>
      </trkpt>
      <trkpt lat="36.700940" lon="-118.878300">
        <ele>2267.586</ele>
        <time>2018-12-29T22:02:55Z</time>
      </trkpt>
      <trkpt lat="36.700830" lon="-118.878330">
        <ele>2268.067</ele>
        <time>2018-12-29T22:03:15Z</time>
      </trkpt>
      <trkpt lat="36.700760" lon="-118.878350">
        <ele>2268.481</ele>
        <time>2018-12-29T22:03:35Z</time>
      </trkpt>
      <trkpt lat="36.700680" lon="-118.878370">
        <ele>2268.919</ele>
        <time>2018-12-29T22:03:55Z</time>
      </trkpt>
      <trkpt lat="36.700500" lon="-118.878410">
        <ele>2269.608</ele>
        <time>2018-12-29T22:04:15Z</time>
      </trkpt>
      <trkpt lat="36.700390" lon="-118.878430">
        <ele>2270.519</ele>
        <time>2018-12-29T22:04:35Z</time>
      </trkpt>
      <trkpt lat="36.700110" lon="-118.878470">
        <ele>2275.477</ele>
        <time>2018-12-29T22:04:55Z</time>
      </trkpt>
      <trkpt lat="36.699960" lon="-118.878500">
        <ele>2276.262</ele>
        <time>2018-12-29T22:05:15Z</time>
      </trkpt>
      <trkpt lat="36.699760" lon="-118.878530">
        <ele>2277.712</ele>
        <time>2018-12-29T22:05:35Z</time>
      </trkpt>
      <trkpt lat="36.699590" lon="-118.878570">
        <ele>2278.876</ele>
        <time>2018-12-29T22:05:55Z</time>
      </trkpt>
      <trkpt lat="36.699450" lon="-118.878590">
        <ele>2280.926</ele>
        <time>2018-12-29T22:06:15Z</time>
      </trkpt>
      <trkpt lat="36.699400" lon="-118.878600">
        <ele>2281.442</ele>
        <time>2018-12-29T22:06:35Z</time>
      </trkpt>
      <trkpt lat="36.699230" lon="-118.878620">
        <ele>2284.371</ele>
        <time>2018-12-29T22:06:55Z</time>
      </trkpt>
      <trkpt lat="36.699180" lon="-118.878630">
        <ele>2285.112</ele>
        <time>2018-12-29T22:07:15Z</time>
      </trkpt>
      <trkpt lat="36.699090" lon="-118.878650">
        <ele>2286.232</ele>
        <time>2018-12-29T22:07:35Z</time>
      </trkpt>
      <trkpt lat="36.698980" lon="-118.878690">
        <ele>2287.205</ele>
        <time>2018-12-29T22:07:55Z</time>
      </trkpt>
      <trkpt lat="36.698910" lon="-118.878710">
        <ele>2288.708</ele>
        <time>2018-12-29T22:08:15Z</time>
      </trkpt>
      <trkpt lat="36.698830" lon="-118.878740">
        <ele>2290.514</ele>
        <time>2018-12-29T22:08:35Z</time>
      </trkpt>
      <trkpt lat="36.698750" lon="-118.878770">
        <ele>2291.732</ele>
        <time>2018-12-29T22:08:55Z</time>
      </trkpt>
      <trkpt lat="36.698590" lon="-118.878840">
        <ele>2289.927</ele>
        <time>2018-12-29T22:09:15Z</time>
      </trkpt>
      <trkpt lat="36.698460" lon="-118.878900">
        <ele>2289.627</ele>
        <time>2018-12-29T22:09:35Z</time>
      </trkpt>
      <trkpt lat="36.698350" lon="-118.878960">
        <ele>2291.121</ele>
        <time>2018-12-29T22:09:55Z</time>
      </trkpt>
      <trkpt lat="36.698310" lon="-118.878970">
        <ele>2292.411</ele>
        <time>2018-12-29T22:10:15Z</time>
      </trkpt>
      <trkpt lat="36.698270" lon="-118.878990">
        <ele>2293.537</ele>
        <time>2018-12-29T22:10:35Z</time>
      </trkpt>
      <trkpt lat="36.698250" lon="-118.878990">
        <ele>2294.486</ele>
        <time>2018-12-29T22:10:55Z</time>
      </trkpt>
      <trkpt lat="36.698190" lon="-118.879000">
        <ele>2296.873</ele>
        <time>2018-12-29T22:11:15Z</time>
      </trkpt>
      <trkpt lat="36.698130" lon="-118.879010">
        <ele>2298.685</ele>
        <time>2018-12-29T22:11:35Z</time>
      </trkpt>
      <trkpt lat="36.698100" lon="-118.879010">
        <ele>2299.713</ele>
        <time>2018-12-29T22:11:55Z</time>
      </trkpt>
      <trkpt lat="36.698050" lon="-118.879010">
        <ele>2301.408</ele>
        <time>2018-12-29T22:12:15Z</time>
      </trkpt>
      <trkpt lat="36.698000" lon="-118.879000">
        <ele>2303.360</ele>
        <time>2018-12-29T22:12:35Z</time>
      </trkpt>
      <trkpt lat="36.697930" lon="-118.878990">
        <ele>2305.948</ele>
        <time>2018-12-29T22:12:55Z</time>
      </trkpt>
      <trkpt lat="36.697870" lon="-118.878980">
        <ele>2306.293</ele>
        <time>2018-12-29T22:13:15Z</time>
      </trkpt>
      <trkpt lat="36.697830" lon="-118.878970">
        <ele>2306.123</ele>
        <time>2018-12-29T22:13:35Z</time>
      </trkpt>
      <trkpt lat="36.697750" lon="-118.878940">
        <ele>2306.097</ele>
        <time>2018-12-29T22:13:55Z</time>
      </trkpt>
      <trkpt lat="36.697710" lon="-118.878920">
        <ele>2306.177</ele>
        <time>2018-12-29T22:14:15Z</time>
      </trkpt>
      <trkpt lat="36.697640" lon="-118.878880">
        <ele>2306.313</ele>
        <time>2018-12-29T22:14:35Z</time>
      </trkpt>
      <trkpt lat="36.697580" lon="-118.878840">
        <ele>2306.552</ele>
        <time>2018-12-29T22:14:55Z</time>
      </trkpt>
      <trkpt lat="36.697540" lon="-118.878810">
        <ele>2306.813</ele>
        <time>2018-12-29T22:15:15Z</time>
      </trkpt>
      <trkpt lat="36.697480" lon="-118.878740">
        <ele>2307.743</ele>
        <time>2018-12-29T22:15:35Z</time>
      </trkpt>
      <trkpt lat="36.697450" lon="-118.878710">
        <ele>2308.107</ele>
        <time>2018-12-29T22:15:55Z</time>
      </trkpt>
      <trkpt lat="36.697410" lon="-118.878660">
        <ele>2308.808</ele>
        <time>2018-12-29T22:16:15Z</time>
      </trkpt>
      <trkpt lat="36.697390" lon="-118.878620">
        <ele>2309.434</ele>
        <time>2018-12-29T22:16:35Z</time>
      </trkpt>
      <trkpt lat="36.697340" lon="-118.878560">
        <ele>2310.252</ele>
        <time>2018-12-29T22:16:55Z</time>
      </trkpt>
      <trkpt lat="36.697290" lon="-118.878460">
        <ele>2311.257</ele>
        <time>2018-12-29T22:17:15Z</time>
      </trkpt>
      <trkpt lat="36.697270" lon="-118.878400">
        <ele>2310.997</ele>
        <time>2018-12-29T22:17:35Z</time>
      </trkpt>
      <trkpt lat="36.697240" lon="-118.878320">
        <ele>2310.491</ele>
        <time>2018-12-29T22:17:55Z</time>
      </trkpt>
      <trkpt lat="36.697210" lon="-118.878230">
        <ele>2309.711</ele>
        <time>2018-12-29T22:18:15Z</time>
      </trkpt>
      <trkpt lat="36.697190" lon="-118.878160">
        <ele>2309.087</ele>
        <time>2018-12-29T22:18:35Z</time>
      </trkpt>
      <trkpt lat="36.697180" lon="-118.878110">
        <ele>2308.516</ele>
        <time>2018-12-29T22:18:55Z</time>
      </trkpt>
      <trkpt lat="36.697180" lon="-118.878060">
        <ele>2308.227</ele>
        <time>2018-12-29T22:19:15Z</time>
      </trkpt>
      <trkpt lat="36.697170" lon="-118.877950">
        <ele>2307.268</ele>
        <time>2018-12-29T22:19:35Z</time>
      </trkpt>
      <trkpt lat="36.697170" lon="-118.877830">
        <ele>2306.414</ele>
        <time>2018-12-29T22:19:55Z</time>
      </trkpt>
      <trkpt lat="36.697180" lon="-118.877730">
        <ele>2305.908</ele>
        <time>2018-12-29T22:20:15Z</time>
      </trkpt>
      <trkpt lat="36.697190" lon="-118.877640">
        <ele>2305.475</ele>
        <time>2018-12-29T22:20:35Z</time>
      </trkpt>
      <trkpt lat="36.697220" lon="-118.877520">
        <ele>2304.893</ele>
        <time>2018-12-29T22:20:55Z</time>
      </trkpt>
      <trkpt lat="36.697250" lon="-118.877430">
        <ele>2304.268</ele>
        <time>2018-12-29T22:21:15Z</time>
      </trkpt>
      <trkpt lat="36.697270" lon="-118.877360">
        <ele>2303.578</ele>
        <time>2018-12-29T22:21:35Z</time>
      </trkpt>
      <trkpt lat="36.697300" lon="-118.877300">
        <ele>2303.482</ele>
        <time>2018-12-29T22:21:55Z</time>
      </trkpt>
      <trkpt lat="36.697330" lon="-118.877240">
        <ele>2303.332</ele>
        <time>2018-12-29T22:22:15Z</time>
      </trkpt>
      <trkpt lat="36.697370" lon="-118.877190">
        <ele>2303.048</ele>
        <time>2018-12-29T22:22:35Z</time>
      </trkpt>
      <trkpt lat="36.697420" lon="-118.877120">
        <ele>2302.597</ele>
        <time>2018-12-29T22:22:55Z</time>
      </trkpt>
      <trkpt lat="36.697460" lon="-118.877070">
        <ele>2302.296</ele>
        <time>2018-12-29T22:23:15Z</time>
      </trkpt>
      <trkpt lat="36.697520" lon="-118.877000">
        <ele>2302.331</ele>
        <time>2018-12-29T22:23:35Z</time>
      </trkpt>
      <trkpt lat="36.697570" lon="-118.876950">
        <ele>2302.224</ele>
        <time>2018-12-29T22:23:55Z</time>
      </trkpt>
      <trkpt lat="36.697670" lon="-118.876860">
        <ele>2302.008</ele>
        <time>2018-12-29T22:24:15Z</time>
      </trkpt>
      <trkpt lat="36.697730" lon="-118.876790">
        <ele>2301.852</ele>
        <time>2018-12-29T22:24:35Z</time>
      </trkpt>
      <trkpt lat="36.697880" lon="-118.876650">
        <ele>2301.380</ele>
        <time>2018-12-29T22:24:55Z</time>
      </trkpt>
      <trkpt lat="36.698160" lon="-118.876390">
        <ele>2300.495</ele>
        <time>2018-12-29T22:25:15Z</time>
      </trkpt>
      <trkpt lat="36.698310" lon="-118.876240">
        <ele>2299.825</ele>
        <time>2018-12-29T22:25:35Z</time>
      </trkpt>
      <trkpt lat="36.698480" lon="-118.876050">
        <ele>2298.879</ele>
        <time>2018-12-29T22:25:55Z</time>
      </trkpt>
      <trkpt lat="36.698540" lon="-118.875990">
        <ele>2299.069</ele>
        <time>2018-12-29T22:26:15Z</time>
      </trkpt>
      <trkpt lat="36.698600" lon="-118.875900">
        <ele>2298.935</ele>
        <time>2018-12-29T22:26:35Z</time>
      </trkpt>
      <trkpt lat="36.698660" lon="-118.875810">
        <ele>2298.854</ele>
        <time>2018-12-29T22:26:55Z</time>
      </trkpt>
      <trkpt lat="36.698690" lon="-118.875760">
        <ele>2298.875</ele>
        <time>2018-12-29T22:27:15Z</time>
      </trkpt>
      <trkpt lat="36.698720" lon="-118.875700">
        <ele>2298.728</ele>
        <time>2018-12-29T22:27:35Z</time>
      </trkpt>
      <trkpt lat="36.698740" lon="-118.875650">
        <ele>2298.520</ele>
        <time>2018-12-29T22:27:55Z</time>
      </trkpt>
      <trkpt lat="36.698780" lon="-118.875580">
        <ele>2298.508</ele>
        <time>2018-12-29T22:28:15Z</time>
      </trkpt>
      <trkpt lat="36.698800" lon="-118.875530">
        <ele>2298.420</ele>
        <time>2018-12-29T22:28:35Z</time>
      </trkpt>
      <trkpt lat="36.698820" lon="-118.875470">
        <ele>2298.328</ele>
        <time>2018-12-29T22:28:55Z</time>
      </trkpt>
      <trkpt lat="36.698840" lon="-118.875410">
        <ele>2298.283</ele>
        <time>2018-12-29T22:29:15Z</time>
      </trkpt>
      <trkpt lat="36.698860" lon="-118.875330">
        <ele>2297.993</ele>
        <time>2018-12-29T22:29:35Z</time>
      </trkpt>
      <trkpt lat="36.698880" lon="-118.875240">
        <ele>2297.417</ele>
        <time>2018-12-29T22:29:55Z</time>
      </trkpt>
      <trkpt lat="36.698900" lon="-118.875180">
        <ele>2297.317</ele>
        <time>2018-12-29T22:30:15Z</time>
      </trkpt>
      <trkpt lat="36.698910" lon="-118.875080">
        <ele>2296.233</ele>
        <time>2018-12-29T22:30:35Z</time>
      </trkpt>
      <trkpt lat="36.698920" lon="-118.874990">
        <ele>2295.082</ele>
        <time>2018-12-29T22:30:55Z</time>
      </trkpt>
      <trkpt lat="36.698930" lon="-118.874910">
        <ele>2293.896</ele>
        <time>2018-12-29T22:31:15Z</time>
      </trkpt>
      <trkpt lat="36.698930" lon="-118.874840">
        <ele>2293.031</ele>
        <time>2018-12-29T22:31:35Z</time>
      </trkpt>
      <trkpt lat="36.698930" lon="-118.874740">
        <ele>2293.024</ele>
        <time>2018-12-29T22:31:55Z</time>
      </trkpt>
      <trkpt lat="36.698930" lon="-118.874700">
        <ele>2292.908</ele>
        <time>2018-12-29T22:32:15Z</time>
      </trkpt>
      <trkpt lat="36.698930" lon="-118.874650">
        <ele>2292.922</ele>
        <time>2018-12-29T22:32:35Z</time>
      </trkpt>
      <trkpt lat="36.698930" lon="-118.874600">
        <ele>2292.940</ele>
        <time>2018-12-29T22:32:55Z</time>
      </trkpt>
      <trkpt lat="36.698920" lon="-118.874560">
        <ele>2292.935</ele>
        <time>2018-12-29T22:33:15Z</time>
      </trkpt>
      <trkpt lat="36.698910" lon="-118.874490">
        <ele>2293.185</ele>
        <time>2018-12-29T22:33:35Z</time>
      </trkpt>
      <trkpt lat="36.698900" lon="-118.874420">
        <ele>2293.569</ele>
        <time>2018-12-29T22:33:55Z</time>
      </trkpt>
      <trkpt lat="36.698890" lon="-118.874360">
        <ele>2293.769</ele>
        <time>2018-12-29T22:34:15Z</time>
      </trkpt>
      <trkpt lat="36.698880" lon="-118.874280">
        <ele>2293.925</ele>
        <time>2018-12-29T22:34:35Z</time>
      </trkpt>
      <trkpt lat="36.698840" lon="-118.874130">
        <ele>2292.344</ele>
        <time>2018-12-29T22:34:55Z</time>
      </trkpt>
      <trkpt lat="36.698790" lon="-118.873910">
        <ele>2289.983</ele>
        <time>2018-12-29T22:35:15Z</time>
      </trkpt>
      <trkpt lat="36.698770" lon="-118.873830">
        <ele>2289.325</ele>
        <time>2018-12-29T22:35:35Z</time>
      </trkpt>
      <trkpt lat="36.698750" lon="-118.873730">
        <ele>2288.717</ele>
        <time>2018-12-29T22:35:55Z</time>
      </trkpt>
      <trkpt lat="36.698740" lon="-118.873650">
        <ele>2288.308</ele>
        <time>2018-12-29T22:36:15Z</time>
      </trkpt>
      <trkpt lat="36.698730" lon="-118.873600">
        <ele>2288.131</ele>
        <time>2018-12-29T22:36:35Z</time>
      </trkpt>
      <trkpt lat="36.698730" lon="-118.873500">
        <ele>2287.959</ele>
        <time>2018-12-29T22:36:55Z</time>
      </trkpt>
      <trkpt lat="36.698730" lon="-118.873360">
        <ele>2287.974</ele>
        <time>2018-12-29T22:37:15Z</time>
      </trkpt>
      <trkpt lat="36.698730" lon="-118.873260">
        <ele>2287.844</ele>
        <time>2018-12-29T22:37:35Z</time>
      </trkpt>
      <trkpt lat="36.698740" lon="-118.873220">
        <ele>2288.128</ele>
        <time>2018-12-29T22:37:55Z</time>
      </trkpt>
      <trkpt lat="36.698740" lon="-118.873160">
        <ele>2287.948</ele>
        <time>2018-12-29T22:38:15Z</time>
      </trkpt>
      <trkpt lat="36.698760" lon="-118.873070">
        <ele>2287.894</ele>
        <time>2018-12-29T22:38:35Z</time>
      </trkpt>
      <trkpt lat="36.698770" lon="-118.873010">
        <ele>2287.613</ele>
        <time>2018-12-29T22:38:55Z</time>
      </trkpt>
      <trkpt lat="36.698780" lon="-118.872950">
        <ele>2287.587</ele>
        <time>2018-12-29T22:39:15Z</time>
      </trkpt>
      <trkpt lat="36.698800" lon="-118.872880">
        <ele>2287.342</ele>
        <time>2018-12-29T22:39:35Z</time>
      </trkpt>
      <trkpt lat="36.698820" lon="-118.872770">
        <ele>2286.626</ele>
        <time>2018-12-29T22:39:55Z</time>
      </trkpt>
      <trkpt lat="36.698850" lon="-118.872690">
        <ele>2286.508</ele>
        <time>2018-12-29T22:40:15Z</time>
      </trkpt>
      <trkpt lat="36.698880" lon="-118.872620">
        <ele>2286.451</ele>
        <time>2018-12-29T22:40:35Z</time>
      </trkpt>
      <trkpt lat="36.698910" lon="-118.872550">
        <ele>2285.879</ele>
        <time>2018-12-29T22:40:55Z</time>
      </trkpt>
      <trkpt lat="36.698930" lon="-118.872500">
        <ele>2285.374</ele>
        <time>2018-12-29T22:41:15Z</time>
      </trkpt>
      <trkpt lat="36.698950" lon="-118.872470">
        <ele>2285.184</ele>
        <time>2018-12-29T22:41:35Z</time>
      </trkpt>
      <trkpt lat="36.698980" lon="-118.872410">
        <ele>2284.578</ele>
        <time>2018-12-29T22:41:55Z</time>
      </trkpt>
      <trkpt lat="36.699010" lon="-118.872360">
        <ele>2284.088</ele>
        <time>2018-12-29T22:42:15Z</time>
      </trkpt>
      <trkpt lat="36.699060" lon="-118.872290">
        <ele>2282.614</ele>
        <time>2018-12-29T22:42:35Z</time>
      </trkpt>
      <trkpt lat="36.699090" lon="-118.872250">
        <ele>2281.743</ele>
        <time>2018-12-29T22:42:55Z</time>
      </trkpt>
      <trkpt lat="36.699140" lon="-118.872190">
        <ele>2280.435</ele>
        <time>2018-12-29T22:43:15Z</time>
      </trkpt>
      <trkpt lat="36.699180" lon="-118.872140">
        <ele>2279.286</ele>
        <time>2018-12-29T22:43:35Z</time>
      </trkpt>
      <trkpt lat="36.699240" lon="-118.872080">
        <ele>2277.714</ele>
        <time>2018-12-29T22:43:55Z</time>
      </trkpt>
      <trkpt lat="36.699480" lon="-118.871840">
        <ele>2276.008</ele>
        <time>2018-12-29T22:44:15Z</time>
      </trkpt>
      <trkpt lat="36.699610" lon="-118.871690">
        <ele>2275.396</ele>
        <time>2018-12-29T22:44:35Z</time>
      </trkpt>
      <trkpt lat="36.699870" lon="-118.871400">
        <ele>2275.674</ele>
        <time>2018-12-29T22:44:55Z</time>
      </trkpt>
      <trkpt lat="36.700000" lon="-118.871230">
        <ele>2275.169</ele>
        <time>2018-12-29T22:45:15Z</time>
      </trkpt>
      <trkpt lat="36.700060" lon="-118.871160">
        <ele>2274.839</ele>
        <time>2018-12-29T22:45:35Z</time>
      </trkpt>
      <trkpt lat="36.700190" lon="-118.870980">
        <ele>2272.943</ele>
        <time>2018-12-29T22:45:55Z</time>
      </trkpt>
      <trkpt lat="36.700260" lon="-118.870860">
        <ele>2270.953</ele>
        <time>2018-12-29T22:46:15Z</time>
      </trkpt>
      <trkpt lat="36.700370" lon="-118.870670">
        <ele>2268.339</ele>
        <time>2018-12-29T22:46:35Z</time>
      </trkpt>
      <trkpt lat="36.700440" lon="-118.870540">
        <ele>2269.038</ele>
        <time>2018-12-29T22:46:55Z</time>
      </trkpt>
      <trkpt lat="36.700530" lon="-118.870370">
        <ele>2267.975</ele>
        <time>2018-12-29T22:47:15Z</time>
      </trkpt>
      <trkpt lat="36.700600" lon="-118.870220">
        <ele>2265.528</ele>
        <time>2018-12-29T22:47:35Z</time>
      </trkpt>
      <trkpt lat="36.700630" lon="-118.870150">
        <ele>2264.620</ele>
        <time>2018-12-29T22:47:55Z</time>
      </trkpt>
      <trkpt lat="36.700690" lon="-118.869990">
        <ele>2263.708</ele>
        <time>2018-12-29T22:48:15Z</time>
      </trkpt>
      <trkpt lat="36.700770" lon="-118.869780">
        <ele>2263.490</ele>
        <time>2018-12-29T22:48:35Z</time>
      </trkpt>
      <trkpt lat="36.700850" lon="-118.869570">
        <ele>2263.988</ele>
        <time>2018-12-29T22:48:55Z</time>
      </trkpt>
      <trkpt lat="36.700900" lon="-118.869430">
        <ele>2264.343</ele>
        <time>2018-12-29T22:49:15Z</time>
      </trkpt>
      <trkpt lat="36.700940" lon="-118.869320">
        <ele>2264.753</ele>
        <time>2018-12-29T22:49:35Z</time>
      </trkpt>
      <trkpt lat="36.700970" lon="-118.869240">
        <ele>2264.427</ele>
        <time>2018-12-29T22:49:55Z</time>
      </trkpt>
      <trkpt lat="36.700990" lon="-118.869170">
        <ele>2263.827</ele>
        <time>2018-12-29T22:50:15Z</time>
      </trkpt>
      <trkpt lat="36.701000" lon="-118.869110">
        <ele>2263.213</ele>
        <time>2018-12-29T22:50:35Z</time>
      </trkpt>
      <trkpt lat="36.701010" lon="-118.869060">
        <ele>2262.732</ele>
        <time>2018-12-29T22:50:55Z</time>
      </trkpt>
      <trkpt lat="36.701020" lon="-118.868980">
        <ele>2261.615</ele>
        <time>2018-12-29T22:51:15Z</time>
      </trkpt>
      <trkpt lat="36.701030" lon="-118.868900">
        <ele>2260.265</ele>
        <time>2018-12-29T22:51:35Z</time>
      </trkpt>
      <trkpt lat="36.701030" lon="-118.868800">
        <ele>2258.411</ele>
        <time>2018-12-29T22:51:55Z</time>
      </trkpt>
      <trkpt lat="36.701030" lon="-118.868700">
        <ele>2256.208</ele>
        <time>2018-12-29T22:52:15Z</time>
      </trkpt>
      <trkpt lat="36.701030" lon="-118.868640">
        <ele>2254.684</ele>
        <time>2018-12-29T22:52:35Z</time>
      </trkpt>
      <trkpt lat="36.701010" lon="-118.868530">
        <ele>2251.822</ele>
        <time>2018-12-29T22:52:55Z</time>
      </trkpt>
      <trkpt lat="36.700990" lon="-118.868450">
        <ele>2250.287</ele>
        <time>2018-12-29T22:53:15Z</time>
      </trkpt>
      <trkpt lat="36.700960" lon="-118.868360">
        <ele>2249.867</ele>
        <time>2018-12-29T22:53:35Z</time>
      </trkpt>
      <trkpt lat="36.700940" lon="-118.868300">
        <ele>2249.451</ele>
        <time>2018-12-29T22:53:55Z</time>
      </trkpt>
      <trkpt lat="36.700910" lon="-118.868210">
        <ele>2248.961</ele>
        <time>2018-12-29T22:54:15Z</time>
      </trkpt>
      <trkpt lat="36.700880" lon="-118.868170">
        <ele>2249.437</ele>
        <time>2018-12-29T22:54:35Z</time>
      </trkpt>
      <trkpt lat="36.700870" lon="-118.868130">
        <ele>2250.516</ele>
        <time>2018-12-29T22:54:55Z</time>
      </trkpt>
      <trkpt lat="36.700840" lon="-118.868090">
        <ele>2251.489</ele>
        <time>2018-12-29T22:55:15Z</time>
      </trkpt>
      <trkpt lat="36.700810" lon="-118.868040">
        <ele>2252.506</ele>
        <time>2018-12-29T22:55:35Z</time>
      </trkpt>
      <trkpt lat="36.700780" lon="-118.868000">
        <ele>2253.226</ele>
        <time>2018-12-29T22:55:55Z</time>
      </trkpt>
      <trkpt lat="36.700740" lon="-118.867950">
        <ele>2253.908</ele>
        <time>2018-12-29T22:56:15Z</time>
      </trkpt>
      <trkpt lat="36.700690" lon="-118.867890">
        <ele>2254.521</ele>
        <time>2018-12-29T22:56:35Z</time>
      </trkpt>
      <trkpt lat="36.700650" lon="-118.867850">
        <ele>2254.569</ele>
        <time>2018-12-29T22:56:55Z</time>
      </trkpt>
      <trkpt lat="36.700610" lon="-118.867820">
        <ele>2254.314</ele>
        <time>2018-12-29T22:57:15Z</time>
      </trkpt>
      <trkpt lat="36.700580" lon="-118.867800">
        <ele>2254.154</ele>
        <time>2018-12-29T22:57:35Z</time>
      </trkpt>
      <trkpt lat="36.700520" lon="-118.867760">
        <ele>2253.828</ele>
        <time>2018-12-29T22:57:55Z</time>
      </trkpt>
      <trkpt lat="36.700480" lon="-118.867740">
        <ele>2253.438</ele>
        <time>2018-12-29T22:58:15Z</time>
      </trkpt>
      <trkpt lat="36.700440" lon="-118.867710">
        <ele>2253.224</ele>
        <time>2018-12-29T22:58:35Z</time>
      </trkpt>
      <trkpt lat="36.700370" lon="-118.867680">
        <ele>2252.863</ele>
        <time>2018-12-29T22:58:55Z</time>
      </trkpt>
      <trkpt lat="36.700290" lon="-118.867650">
        <ele>2252.756</ele>
        <time>2018-12-29T22:59:15Z</time>
      </trkpt>
      <trkpt lat="36.700210" lon="-118.867630">
        <ele>2252.259</ele>
        <time>2018-12-29T22:59:35Z</time>
      </trkpt>
      <trkpt lat="36.700100" lon="-118.867600">
        <ele>2252.214</ele>
        <time>2018-12-29T22:59:55Z</time>
      </trkpt>
      <trkpt lat="36.700000" lon="-118.867570">
        <ele>2252.808</ele>
        <time>2018-12-29T23:00:15Z</time>
      </trkpt>
      <trkpt lat="36.699630" lon="-118.867480">
        <ele>2254.118</ele>
        <time>2018-12-29T23:00:35Z</time>
      </trkpt>
      <trkpt lat="36.699320" lon="-118.867400">
        <ele>2253.096</ele>
        <time>2018-12-29T23:00:55Z</time>
      </trkpt>
      <trkpt lat="36.698930" lon="-118.867300">
        <ele>2254.381</ele>
        <time>2018-12-29T23:01:15Z</time>
      </trkpt>
      <trkpt lat="36.698800" lon="-118.867270">
        <ele>2254.871</ele>
        <time>2018-12-29T23:01:35Z</time>
      </trkpt>
      <trkpt lat="36.698640" lon="-118.867230">
        <ele>2256.035</ele>
        <time>2018-12-29T23:01:55Z</time>
      </trkpt>
      <trkpt lat="36.698420" lon="-118.867190">
        <ele>2256.935</ele>
        <time>2018-12-29T23:02:15Z</time>
      </trkpt>
      <trkpt lat="36.698360" lon="-118.867180">
        <ele>2256.951</ele>
        <time>2018-12-29T23:02:35Z</time>
      </trkpt>
      <trkpt lat="36.698310" lon="-118.867170">
        <ele>2256.980</ele>
        <time>2018-12-29T23:02:55Z</time>
      </trkpt>
      <trkpt lat="36.698260" lon="-118.867160">
        <ele>2256.817</ele>
        <time>2018-12-29T23:03:15Z</time>
      </trkpt>
      <trkpt lat="36.698180" lon="-118.867160">
        <ele>2256.887</ele>
        <time>2018-12-29T23:03:35Z</time>
      </trkpt>
      <trkpt lat="36.698120" lon="-118.867150">
        <ele>2256.615</ele>
        <time>2018-12-29T23:03:55Z</time>
      </trkpt>
      <trkpt lat="36.698010" lon="-118.867150">
        <ele>2256.308</ele>
        <time>2018-12-29T23:04:15Z</time>
      </trkpt>
      <trkpt lat="36.697930" lon="-118.867150">
        <ele>2256.164</ele>
        <time>2018-12-29T23:04:35Z</time>
      </trkpt>
      <trkpt lat="36.697860" lon="-118.867160">
        <ele>2255.732</ele>
        <time>2018-12-29T23:04:55Z</time>
      </trkpt>
      <trkpt lat="36.697810" lon="-118.867160">
        <ele>2255.237</ele>
        <time>2018-12-29T23:05:15Z</time>
      </trkpt>
      <trkpt lat="36.697740" lon="-118.867170">
        <ele>2254.737</ele>
        <time>2018-12-29T23:05:35Z</time>
      </trkpt>
      <trkpt lat="36.697660" lon="-118.867190">
        <ele>2254.191</ele>
        <time>2018-12-29T23:05:55Z</time>
      </trkpt>
      <trkpt lat="36.697500" lon="-118.867220">
        <ele>2252.581</ele>
        <time>2018-12-29T23:06:15Z</time>
      </trkpt>
      <trkpt lat="36.697370" lon="-118.867260">
        <ele>2250.767</ele>
        <time>2018-12-29T23:06:35Z</time>
      </trkpt>
      <trkpt lat="36.697200" lon="-118.867320">
        <ele>2249.496</ele>
        <time>2018-12-29T23:06:55Z</time>
      </trkpt>
      <trkpt lat="36.697060" lon="-118.867380">
        <ele>2248.314</ele>
        <time>2018-12-29T23:07:15Z</time>
      </trkpt>
      <trkpt lat="36.696850" lon="-118.867470">
        <ele>2247.854</ele>
        <time>2018-12-29T23:07:35Z</time>
      </trkpt>
      <trkpt lat="36.696500" lon="-118.867620">
        <ele>2245.209</ele>
        <time>2018-12-29T23:07:55Z</time>
      </trkpt>
      <trkpt lat="36.696220" lon="-118.867740">
        <ele>2243.408</ele>
        <time>2018-12-29T23:08:15Z</time>
      </trkpt>
      <trkpt lat="36.696050" lon="-118.867820">
        <ele>2242.894</ele>
        <time>2018-12-29T23:08:35Z</time>
      </trkpt>
      <trkpt lat="36.695620" lon="-118.868010">
        <ele>2241.782</ele>
        <time>2018-12-29T23:08:55Z</time>
      </trkpt>
      <trkpt lat="36.695220" lon="-118.868170">
        <ele>2237.887</ele>
        <time>2018-12-29T23:09:15Z</time>
      </trkpt>
      <trkpt lat="36.695010" lon="-118.868260">
        <ele>2235.247</ele>
        <time>2018-12-29T23:09:35Z</time>
      </trkpt>
      <trkpt lat="36.694820" lon="-118.868350">
        <ele>2232.991</ele>
        <time>2018-12-29T23:09:55Z</time>
      </trkpt>
      <trkpt lat="36.694650" lon="-118.868430">
        <ele>2230.691</ele>
        <time>2018-12-29T23:10:15Z</time>
      </trkpt>
      <trkpt lat="36.694490" lon="-118.868490">
        <ele>2229.537</ele>
        <time>2018-12-29T23:10:35Z</time>
      </trkpt>
      <trkpt lat="36.694200" lon="-118.868630">
        <ele>2228.216</ele>
        <time>2018-12-29T23:10:55Z</time>
      </trkpt>
      <trkpt lat="36.694060" lon="-118.868690">
        <ele>2227.954</ele>
        <time>2018-12-29T23:11:15Z</time>
      </trkpt>
      <trkpt lat="36.693900" lon="-118.868760">
        <ele>2227.356</ele>
        <time>2018-12-29T23:11:35Z</time>
      </trkpt>
      <trkpt lat="36.693790" lon="-118.868820">
        <ele>2226.411</ele>
        <time>2018-12-29T23:11:55Z</time>
      </trkpt>
      <trkpt lat="36.693640" lon="-118.868910">
        <ele>2225.308</ele>
        <time>2018-12-29T23:12:15Z</time>
      </trkpt>
      <trkpt lat="36.693510" lon="-118.868990">
        <ele>2224.558</ele>
        <time>2018-12-29T23:12:35Z</time>
      </trkpt>
      <trkpt lat="36.693380" lon="-118.869070">
        <ele>2224.026</ele>
        <time>2018-12-29T23:12:55Z</time>
      </trkpt>
      <trkpt lat="36.693150" lon="-118.869240">
        <ele>2223.261</ele>
        <time>2018-12-29T23:13:15Z</time>
      </trkpt>
      <trkpt lat="36.693030" lon="-118.869330">
        <ele>2222.721</ele>
        <time>2018-12-29T23:13:35Z</time>
      </trkpt>
      <trkpt lat="36.692950" lon="-118.869400">
        <ele>2222.625</ele>
        <time>2018-12-29T23:13:55Z</time>
      </trkpt>
      <trkpt lat="36.692860" lon="-118.869480">
        <ele>2221.915</ele>
        <time>2018-12-29T23:14:15Z</time>
      </trkpt>
      <trkpt lat="36.692770" lon="-118.869560">
        <ele>2220.771</ele>
        <time>2018-12-29T23:14:35Z</time>
      </trkpt>
      <trkpt lat="36.692510" lon="-118.869810">
        <ele>2218.420</ele>
        <time>2018-12-29T23:14:55Z</time>
      </trkpt>
      <trkpt lat="36.692370" lon="-118.869960">
        <ele>2217.686</ele>
        <time>2018-12-29T23:15:15Z</time>
      </trkpt>
      <trkpt lat="36.692220" lon="-118.870120">
        <ele>2216.660</ele>
        <time>2018-12-29T23:15:35Z</time>
      </trkpt>
      <trkpt lat="36.692090" lon="-118.870250">
        <ele>2215.926</ele>
        <time>2018-12-29T23:15:55Z</time>
      </trkpt>
      <trkpt lat="36.691950" lon="-118.870390">
        <ele>2215.408</ele>
        <time>2018-12-29T23:16:15Z</time>
      </trkpt>
      <trkpt lat="36.691730" lon="-118.870610">
        <ele>2214.251</ele>
        <time>2018-12-29T23:16:35Z</time>
      </trkpt>
      <trkpt lat="36.691590" lon="-118.870760">
        <ele>2213.739</ele>
        <time>2018-12-29T23:16:55Z</time>
      </trkpt>
      <trkpt lat="36.691530" lon="-118.870820">
        <ele>2213.584</ele>
        <time>2018-12-29T23:17:15Z</time>
      </trkpt>
      <trkpt lat="36.691480" lon="-118.870870">
        <ele>2213.434</ele>
        <time>2018-12-29T23:17:35Z</time>
      </trkpt>
      <trkpt lat="36.691350" lon="-118.870970">
        <ele>2213.478</ele>
        <time>2018-12-29T23:17:55Z</time>
      </trkpt>
      <trkpt lat="36.691270" lon="-118.871030">
        <ele>2213.338</ele>
        <time>2018-12-29T23:18:15Z</time>
      </trkpt>
      <trkpt lat="36.691190" lon="-118.871090">
        <ele>2213.374</ele>
        <time>2018-12-29T23:18:35Z</time>
      </trkpt>
      <trkpt lat="36.691090" lon="-118.871140">
        <ele>2213.563</ele>
        <time>2018-12-29T23:18:55Z</time>
      </trkpt>
      <trkpt lat="36.691000" lon="-118.871180">
        <ele>2213.795</ele>
        <time>2018-12-29T23:19:15Z</time>
      </trkpt>
      <trkpt lat="36.690930" lon="-118.871210">
        <ele>2213.649</ele>
        <time>2018-12-29T23:19:35Z</time>
      </trkpt>
      <trkpt lat="36.690780" lon="-118.871270">
        <ele>2213.123</ele>
        <time>2018-12-29T23:19:55Z</time>
      </trkpt>
      <trkpt lat="36.690680" lon="-118.871290">
        <ele>2212.908</ele>
        <time>2018-12-29T23:20:15Z</time>
      </trkpt>
      <trkpt lat="36.690580" lon="-118.871310">
        <ele>2211.612</ele>
        <time>2018-12-29T23:20:35Z</time>
      </trkpt>
      <trkpt lat="36.690470" lon="-118.871320">
        <ele>2210.430</ele>
        <time>2018-12-29T23:20:55Z</time>
      </trkpt>
      <trkpt lat="36.690400" lon="-118.871330">
        <ele>2209.835</ele>
        <time>2018-12-29T23:21:15Z</time>
      </trkpt>
      <trkpt lat="36.690320" lon="-118.871330">
        <ele>2209.375</ele>
        <time>2018-12-29T23:21:35Z</time>
      </trkpt>
      <trkpt lat="36.690270" lon="-118.871340">
        <ele>2208.949</ele>
        <time>2018-12-29T23:21:55Z</time>
      </trkpt>
      <trkpt lat="36.690190" lon="-118.871340">
        <ele>2208.369</ele>
        <time>2018-12-29T23:22:15Z</time>
      </trkpt>
      <trkpt lat="36.689860" lon="-118.871330">
        <ele>2207.875</ele>
        <time>2018-12-29T23:22:35Z</time>
      </trkpt>
      <trkpt lat="36.689620" lon="-118.871330">
        <ele>2207.394</ele>
        <time>2018-12-29T23:22:55Z</time>
      </trkpt>
      <trkpt lat="36.689310" lon="-118.871320">
        <ele>2205.998</ele>
        <time>2018-12-29T23:23:15Z</time>
      </trkpt>
      <trkpt lat="36.689220" lon="-118.871320">
        <ele>2204.815</ele>
        <time>2018-12-29T23:23:35Z</time>
      </trkpt>
      <trkpt lat="36.689090" lon="-118.871320">
        <ele>2203.126</ele>
        <time>2018-12-29T23:23:55Z</time>
      </trkpt>
      <trkpt lat="36.689020" lon="-118.871310">
        <ele>2202.408</ele>
        <time>2018-12-29T23:24:15Z</time>
      </trkpt>
      <trkpt lat="36.688980" lon="-118.871300">
        <ele>2202.062</ele>
        <time>2018-12-29T23:24:35Z</time>
      </trkpt>
      <trkpt lat="36.688930" lon="-118.871290">
        <ele>2201.580</ele>
        <time>2018-12-29T23:24:55Z</time>
      </trkpt>
      <trkpt lat="36.688840" lon="-118.871270">
        <ele>2200.565</ele>
        <time>2018-12-29T23:25:15Z</time>
      </trkpt>
      <trkpt lat="36.688780" lon="-118.871250">
        <ele>2199.945</ele>
        <time>2018-12-29T23:25:35Z</time>
      </trkpt>
      <trkpt lat="36.688700" lon="-118.871210">
        <ele>2199.359</ele>
        <time>2018-12-29T23:25:55Z</time>
      </trkpt>
      <trkpt lat="36.688620" lon="-118.871170">
        <ele>2198.899</ele>
        <time>2018-12-29T23:26:15Z</time>
      </trkpt>
      <trkpt lat="36.688540" lon="-118.871130">
        <ele>2198.325</ele>
        <time>2018-12-29T23:26:35Z</time>
      </trkpt>
      <trkpt lat="36.688470" lon="-118.871080">
        <ele>2197.864</ele>
        <time>2018-12-29T23:26:55Z</time>
      </trkpt>
      <trkpt lat="36.688400" lon="-118.871020">
        <ele>2196.933</ele>
        <time>2018-12-29T23:27:15Z</time>
      </trkpt>
      <trkpt lat="36.688320" lon="-118.870940">
        <ele>2196.223</ele>
        <time>2018-12-29T23:27:35Z</time>
      </trkpt>
      <trkpt lat="36.688300" lon="-118.870920">
        <ele>2196.015</ele>
        <time>2018-12-29T23:27:55Z</time>
      </trkpt>
      <trkpt lat="36.688220" lon="-118.870830">
        <ele>2195.408</ele>
        <time>2018-12-29T23:28:15Z</time>
      </trkpt>
      <trkpt lat="36.688190" lon="-118.870790">
        <ele>2195.226</ele>
        <time>2018-12-29T23:28:35Z</time>
      </trkpt>
      <trkpt lat="36.688150" lon="-118.870730">
        <ele>2194.814</ele>
        <time>2018-12-29T23:28:55Z</time>
      </trkpt>
      <trkpt lat="36.688090" lon="-118.870640">
        <ele>2194.419</ele>
        <time>2018-12-29T23:29:15Z</time>
      </trkpt>
      <trkpt lat="36.688040" lon="-118.870540">
        <ele>2194.579</ele>
        <time>2018-12-29T23:29:35Z</time>
      </trkpt>
      <trkpt lat="36.687980" lon="-118.870420">
        <ele>2194.793</ele>
        <time>2018-12-29T23:29:55Z</time>
      </trkpt>
      <trkpt lat="36.687940" lon="-118.870330">
        <ele>2194.713</ele>
        <time>2018-12-29T23:30:15Z</time>
      </trkpt>
      <trkpt lat="36.687920" lon="-118.870260">
        <ele>2194.959</ele>
        <time>2018-12-29T23:30:35Z</time>
      </trkpt>
      <trkpt lat="36.687890" lon="-118.870180">
        <ele>2194.738</ele>
        <time>2018-12-29T23:30:55Z</time>
      </trkpt>
      <trkpt lat="36.687880" lon="-118.870100">
        <ele>2194.659</ele>
        <time>2018-12-29T23:31:15Z</time>
      </trkpt>
      <trkpt lat="36.687860" lon="-118.870010">
        <ele>2194.003</ele>
        <time>2018-12-29T23:31:35Z</time>
      </trkpt>
      <trkpt lat="36.687840" lon="-118.869880">
        <ele>2193.323</ele>
        <time>2018-12-29T23:31:55Z</time>
      </trkpt>
      <trkpt lat="36.687830" lon="-118.869790">
        <ele>2192.608</ele>
        <time>2018-12-29T23:32:15Z</time>
      </trkpt>
      <trkpt lat="36.687820" lon="-118.869720">
        <ele>2191.938</ele>
        <time>2018-12-29T23:32:35Z</time>
      </trkpt>
      <trkpt lat="36.687820" lon="-118.869630">
        <ele>2191.336</ele>
        <time>2018-12-29T23:32:55Z</time>
      </trkpt>
      <trkpt lat="36.687820" lon="-118.869560">
        <ele>2190.931</ele>
        <time>2018-12-29T23:33:15Z</time>
      </trkpt>
      <trkpt lat="36.687830" lon="-118.869450">
        <ele>2190.141</ele>
        <time>2018-12-29T23:33:35Z</time>
      </trkpt>
      <trkpt lat="36.687840" lon="-118.869280">
        <ele>2188.925</ele>
        <time>2018-12-29T23:33:55Z</time>
      </trkpt>
      <trkpt lat="36.687890" lon="-118.868730">
        <ele>2186.645</ele>
        <time>2018-12-29T23:34:15Z</time>
      </trkpt>
      <trkpt lat="36.687940" lon="-118.868280">
        <ele>2186.311</ele>
        <time>2018-12-29T23:34:35Z</time>
      </trkpt>
      <trkpt lat="36.687960" lon="-118.868040">
        <ele>2185.230</ele>
        <time>2018-12-29T23:34:55Z</time>
      </trkpt>
      <trkpt lat="36.687970" lon="-118.867930">
        <ele>2184.628</ele>
        <time>2018-12-29T23:35:15Z</time>
      </trkpt>
      <trkpt lat="36.687990" lon="-118.867700">
        <ele>2182.689</ele>
        <time>2018-12-29T23:35:35Z</time>
      </trkpt>
      <trkpt lat="36.688020" lon="-118.867400">
        <ele>2180.917</ele>
        <time>2018-12-29T23:35:55Z</time>
      </trkpt>
      <trkpt lat="36.688030" lon="-118.867250">
        <ele>2180.108</ele>
        <time>2018-12-29T23:36:15Z</time>
      </trkpt>
      <trkpt lat="36.688040" lon="-118.867180">
        <ele>2179.765</ele>
        <time>2018-12-29T23:36:35Z</time>
      </trkpt>
      <trkpt lat="36.688040" lon="-118.867100">
        <ele>2179.263</ele>
        <time>2018-12-29T23:36:55Z</time>
      </trkpt>
      <trkpt lat="36.688040" lon="-118.866960">
        <ele>2178.748</ele>
        <time>2018-12-29T23:37:15Z</time>
      </trkpt>
      <trkpt lat="36.688030" lon="-118.866860">
        <ele>2178.348</ele>
        <time>2018-12-29T23:37:35Z</time>
      </trkpt>
      <trkpt lat="36.688020" lon="-118.866770">
        <ele>2178.212</ele>
        <time>2018-12-29T23:37:55Z</time>
      </trkpt>
      <trkpt lat="36.688000" lon="-118.866680">
        <ele>2178.192</ele>
        <time>2018-12-29T23:38:15Z</time>
      </trkpt>
      <trkpt lat="36.687980" lon="-118.866570">
        <ele>2178.118</ele>
        <time>2018-12-29T23:38:35Z</time>
      </trkpt>
      <trkpt lat="36.687950" lon="-118.866480">
        <ele>2177.767</ele>
        <time>2018-12-29T23:38:55Z</time>
      </trkpt>
      <trkpt lat="36.687930" lon="-118.866410">
        <ele>2177.425</ele>
        <time>2018-12-29T23:39:15Z</time>
      </trkpt>
      <trkpt lat="36.687910" lon="-118.866340">
        <ele>2177.126</ele>
        <time>2018-12-29T23:39:35Z</time>
      </trkpt>
      <trkpt lat="36.687870" lon="-118.866250">
        <ele>2176.508</ele>
        <time>2018-12-29T23:39:55Z</time>
      </trkpt>
      <trkpt lat="36.687840" lon="-118.866200">
        <ele>2176.008</ele>
        <time>2018-12-29T23:40:15Z</time>
      </trkpt>
      <trkpt lat="36.687790" lon="-118.866110">
        <ele>2175.095</ele>
        <time>2018-12-29T23:40:35Z</time>
      </trkpt>
      <trkpt lat="36.687790" lon="-118.866100">
        <ele>2174.993</ele>
        <time>2018-12-29T23:40:55Z</time>
      </trkpt>
      <trkpt lat="36.687760" lon="-118.866050">
        <ele>2174.268</ele>
        <time>2018-12-29T23:41:15Z</time>
      </trkpt>
      <trkpt lat="36.687710" lon="-118.865980">
        <ele>2172.858</ele>
        <time>2018-12-29T23:41:35Z</time>
      </trkpt>
      <trkpt lat="36.687660" lon="-118.865920">
        <ele>2172.112</ele>
        <time>2018-12-29T23:41:55Z</time>
      </trkpt>
      <trkpt lat="36.687610" lon="-118.865860">
        <ele>2171.932</ele>
        <time>2018-12-29T23:42:15Z</time>
      </trkpt>
      <trkpt lat="36.687560" lon="-118.865790">
        <ele>2171.968</ele>
        <time>2018-12-29T23:42:35Z</time>
      </trkpt>
      <trkpt lat="36.687500" lon="-118.865730">
        <ele>2171.777</ele>
        <time>2018-12-29T23:42:55Z</time>
      </trkpt>
      <trkpt lat="36.687490" lon="-118.865720">
        <ele>2171.668</ele>
        <time>2018-12-29T23:43:15Z</time>
      </trkpt>
      <trkpt lat="36.687460" lon="-118.865690">
        <ele>2171.442</ele>
        <time>2018-12-29T23:43:35Z</time>
      </trkpt>
      <trkpt lat="36.687390" lon="-118.865630">
        <ele>2171.126</ele>
        <time>2018-12-29T23:43:55Z</time>
      </trkpt>
      <trkpt lat="36.687320" lon="-118.865590">
        <ele>2170.708</ele>
        <time>2018-12-29T23:44:15Z</time>
      </trkpt>
      <trkpt lat="36.687240" lon="-118.865530">
        <ele>2170.579</ele>
        <time>2018-12-29T23:44:35Z</time>
      </trkpt>
      <trkpt lat="36.687150" lon="-118.865480">
        <ele>2170.037</ele>
        <time>2018-12-29T23:44:55Z</time>
      </trkpt>
      <trkpt lat="36.686990" lon="-118.865370">
        <ele>2169.442</ele>
        <time>2018-12-29T23:45:15Z</time>
      </trkpt>
      <trkpt lat="36.686900" lon="-118.865300">
        <ele>2169.382</ele>
        <time>2018-12-29T23:45:35Z</time>
      </trkpt>
      <trkpt lat="36.686860" lon="-118.865260">
        <ele>2169.346</ele>
        <time>2018-12-29T23:45:55Z</time>
      </trkpt>
      <trkpt lat="36.686800" lon="-118.865210">
        <ele>2169.026</ele>
        <time>2018-12-29T23:46:15Z</time>
      </trkpt>
      <trkpt lat="36.686730" lon="-118.865120">
        <ele>2168.722</ele>
        <time>2018-12-29T23:46:35Z</time>
      </trkpt>
      <trkpt lat="36.686680" lon="-118.865060">
        <ele>2168.591</ele>
        <time>2018-12-29T23:46:55Z</time>
      </trkpt>
      <trkpt lat="36.686610" lon="-118.864960">
        <ele>2168.193</ele>
        <time>2018-12-29T23:47:15Z</time>
      </trkpt>
      <trkpt lat="36.686570" lon="-118.864890">
        <ele>2167.865</ele>
        <time>2018-12-29T23:47:35Z</time>
      </trkpt>
      <trkpt lat="36.686520" lon="-118.864770">
        <ele>2167.321</ele>
        <time>2018-12-29T23:47:55Z</time>
      </trkpt>
      <trkpt lat="36.686460" lon="-118.864640">
        <ele>2166.508</ele>
        <time>2018-12-29T23:48:15Z</time>
      </trkpt>
      <trkpt lat="36.686410" lon="-118.864490">
        <ele>2165.492</ele>
        <time>2018-12-29T23:48:35Z</time>
      </trkpt>
      <trkpt lat="36.686380" lon="-118.864390">
        <ele>2164.640</ele>
        <time>2018-12-29T23:48:55Z</time>
      </trkpt>
      <trkpt lat="36.686370" lon="-118.864330">
        <ele>2164.425</ele>
        <time>2018-12-29T23:49:15Z</time>
      </trkpt>
      <trkpt lat="36.686360" lon="-118.864280">
        <ele>2164.085</ele>
        <time>2018-12-29T23:49:35Z</time>
      </trkpt>
      <trkpt lat="36.686340" lon="-118.864160">
        <ele>2163.129</ele>
        <time>2018-12-29T23:49:55Z</time>
      </trkpt>
      <trkpt lat="36.686330" lon="-118.864070">
        <ele>2162.579</ele>
        <time>2018-12-29T23:50:15Z</time>
      </trkpt>
      <trkpt lat="36.686330" lon="-118.863980">
        <ele>2161.775</ele>
        <time>2018-12-29T23:50:35Z</time>
      </trkpt>
      <trkpt lat="36.686330" lon="-118.863900">
        <ele>2160.574</ele>
        <time>2018-12-29T23:50:55Z</time>
      </trkpt>
      <trkpt lat="36.686330" lon="-118.863840">
        <ele>2159.719</ele>
        <time>2018-12-29T23:51:15Z</time>
      </trkpt>
      <trkpt lat="36.686330" lon="-118.863770">
        <ele>2158.709</ele>
        <time>2018-12-29T23:51:35Z</time>
      </trkpt>
      <trkpt lat="36.686340" lon="-118.863680">
        <ele>2157.919</ele>
        <time>2018-12-29T23:51:55Z</time>
      </trkpt>
      <trkpt lat="36.686360" lon="-118.863570">
        <ele>2157.308</ele>
        <time>2018-12-29T23:52:15Z</time>
      </trkpt>
      <trkpt lat="36.686380" lon="-118.863440">
        <ele>2156.674</ele>
        <time>2018-12-29T23:52:35Z</time>
      </trkpt>
      <trkpt lat="36.686410" lon="-118.863320">
        <ele>2156.342</ele>
        <time>2018-12-29T23:52:55Z</time>
      </trkpt>
      <trkpt lat="36.686500" lon="-118.862910">
        <ele>2155.537</ele>
        <time>2018-12-29T23:53:15Z</time>
      </trkpt>
      <trkpt lat="36.686610" lon="-118.862400">
        <ele>2153.447</ele>
        <time>2018-12-29T23:53:35Z</time>
      </trkpt>
      <trkpt lat="36.686710" lon="-118.861950">
        <ele>2153.081</ele>
        <time>2018-12-29T23:53:55Z</time>
      </trkpt>
      <trkpt lat="36.686790" lon="-118.861540">
        <ele>2153.251</ele>
        <time>2018-12-29T23:54:15Z</time>
      </trkpt>
      <trkpt lat="36.686880" lon="-118.861170">
        <ele>2151.917</ele>
        <time>2018-12-29T23:54:35Z</time>
      </trkpt>
      <trkpt lat="36.686970" lon="-118.860750">
        <ele>2146.936</ele>
        <time>2018-12-29T23:54:55Z</time>
      </trkpt>
      <trkpt lat="36.687010" lon="-118.860560">
        <ele>2145.026</ele>
        <time>2018-12-29T23:55:15Z</time>
      </trkpt>
      <trkpt lat="36.687060" lon="-118.860400">
        <ele>2144.347</ele>
        <time>2018-12-29T23:55:35Z</time>
      </trkpt>
      <trkpt lat="36.687090" lon="-118.860310">
        <ele>2144.011</ele>
        <time>2018-12-29T23:55:55Z</time>
      </trkpt>
      <trkpt lat="36.687120" lon="-118.860220">
        <ele>2144.008</ele>
        <time>2018-12-29T23:56:15Z</time>
      </trkpt>
      <trkpt lat="36.687140" lon="-118.860170">
        <ele>2144.035</ele>
        <time>2018-12-29T23:56:35Z</time>
      </trkpt>
      <trkpt lat="36.687160" lon="-118.860110">
        <ele>2143.723</ele>
        <time>2018-12-29T23:56:55Z</time>
      </trkpt>
      <trkpt lat="36.687190" lon="-118.860040">
        <ele>2143.428</ele>
        <time>2018-12-29T23:57:15Z</time>
      </trkpt>
      <trkpt lat="36.687230" lon="-118.859950">
        <ele>2142.978</ele>
        <time>2018-12-29T23:57:35Z</time>
      </trkpt>
      <trkpt lat="36.687270" lon="-118.859860">
        <ele>2142.432</ele>
        <time>2018-12-29T23:57:55Z</time>
      </trkpt>
      <trkpt lat="36.687300" lon="-118.859800">
        <ele>2142.012</ele>
        <time>2018-12-29T23:58:15Z</time>
      </trkpt>
      <trkpt lat="36.687330" lon="-118.859740">
        <ele>2141.698</ele>
        <time>2018-12-29T23:58:35Z</time>
      </trkpt>
      <trkpt lat="36.687370" lon="-118.859660">
        <ele>2141.087</ele>
        <time>2018-12-29T23:58:55Z</time>
      </trkpt>
      <trkpt lat="36.687390" lon="-118.859620">
        <ele>2140.829</ele>
        <time>2018-12-29T23:59:15Z</time>
      </trkpt>
      <trkpt lat="36.687450" lon="-118.859530">
        <ele>2140.500</ele>
        <time>2018-12-29T23:59:35Z</time>
      </trkpt>
      <trkpt lat="36.687530" lon="-118.859400">
        <ele>2139.720</ele>
        <time>2018-12-29T23:59:55Z</time>
      </trkpt>
      <trkpt lat="36.687610" lon="-118.859270">
        <ele>2139.008</ele>
        <time>2018-12-30T00:00:15Z</time>
      </trkpt>
      <trkpt lat="36.687690" lon="-118.859150">
        <ele>2137.925</ele>
        <time>2018-12-30T00:00:35Z</time>
      </trkpt>
      <trkpt lat="36.687770" lon="-118.859020">
        <ele>2135.553</ele>
        <time>2018-12-30T00:00:55Z</time>
      </trkpt>
      <trkpt lat="36.687800" lon="-118.858960">
        <ele>2134.938</ele>
        <time>2018-12-30T00:01:15Z</time>
      </trkpt>
      <trkpt lat="36.687840" lon="-118.858900">
        <ele>2134.468</ele>
        <time>2018-12-30T00:01:35Z</time>
      </trkpt>
      <trkpt lat="36.687880" lon="-118.858810">
        <ele>2133.692</ele>
        <time>2018-12-30T00:01:55Z</time>
      </trkpt>
      <trkpt lat="36.687910" lon="-118.858730">
        <ele>2133.092</ele>
        <time>2018-12-30T00:02:15Z</time>
      </trkpt>
      <trkpt lat="36.687940" lon="-118.858650">
        <ele>2133.158</ele>
        <time>2018-12-30T00:02:35Z</time>
      </trkpt>
      <trkpt lat="36.687970" lon="-118.858530">
        <ele>2133.047</ele>
        <time>2018-12-30T00:02:55Z</time>
      </trkpt>
      <trkpt lat="36.687990" lon="-118.858420">
        <ele>2132.714</ele>
        <time>2018-12-30T00:03:15Z</time>
      </trkpt>
      <trkpt lat="36.688010" lon="-118.858300">
        <ele>2132.354</ele>
        <time>2018-12-30T00:03:35Z</time>
      </trkpt>
      <trkpt lat="36.688010" lon="-118.858220">
        <ele>2131.809</ele>
        <time>2018-12-30T00:03:55Z</time>
      </trkpt>
      <trkpt lat="36.688020" lon="-118.858150">
        <ele>2131.308</ele>
        <time>2018-12-30T00:04:15Z</time>
      </trkpt>
      <trkpt lat="36.688020" lon="-118.858050">
        <ele>2130.264</ele>
        <time>2018-12-30T00:04:35Z</time>
      </trkpt>
      <trkpt lat="36.688020" lon="-118.857920">
        <ele>2128.852</ele>
        <time>2018-12-30T00:04:55Z</time>
      </trkpt>
      <trkpt lat="36.688000" lon="-118.857830">
        <ele>2128.087</ele>
        <time>2018-12-30T00:05:15Z</time>
      </trkpt>
      <trkpt lat="36.687970" lon="-118.857650">
        <ele>2126.327</ele>
        <time>2018-12-30T00:05:35Z</time>
      </trkpt>
      <trkpt lat="36.687940" lon="-118.857530">
        <ele>2127.211</ele>
        <time>2018-12-30T00:05:55Z</time>
      </trkpt>
      <trkpt lat="36.687890" lon="-118.857380">
        <ele>2128.041</ele>
        <time>2018-12-30T00:06:15Z</time>
      </trkpt>
      <trkpt lat="36.687840" lon="-118.857270">
        <ele>2128.417</ele>
        <time>2018-12-30T00:06:35Z</time>
      </trkpt>
      <trkpt lat="36.687770" lon="-118.857140">
        <ele>2128.216</ele>
        <time>2018-12-30T00:06:55Z</time>
      </trkpt>
      <trkpt lat="36.687730" lon="-118.857090">
        <ele>2127.765</ele>
        <time>2018-12-30T00:07:15Z</time>
      </trkpt>
      <trkpt lat="36.687700" lon="-118.857040">
        <ele>2127.068</ele>
        <time>2018-12-30T00:07:35Z</time>
      </trkpt>
      <trkpt lat="36.687640" lon="-118.856970">
        <ele>2125.714</ele>
        <time>2018-12-30T00:07:55Z</time>
      </trkpt>
      <trkpt lat="36.687590" lon="-118.856920">
        <ele>2125.408</ele>
        <time>2018-12-30T00:08:15Z</time>
      </trkpt>
      <trkpt lat="36.687560" lon="-118.856880">
        <ele>2125.359</ele>
        <time>2018-12-30T00:08:35Z</time>
      </trkpt>
      <trkpt lat="36.687520" lon="-118.856850">
        <ele>2125.237</ele>
        <time>2018-12-30T00:08:55Z</time>
      </trkpt>
      <trkpt lat="36.687430" lon="-118.856780">
        <ele>2125.242</ele>
        <time>2018-12-30T00:09:15Z</time>
      </trkpt>
      <trkpt lat="36.687340" lon="-118.856720">
        <ele>2125.912</ele>
        <time>2018-12-30T00:09:35Z</time>
      </trkpt>
      <trkpt lat="36.687280" lon="-118.856690">
        <ele>2126.336</ele>
        <time>2018-12-30T00:09:55Z</time>
      </trkpt>
      <trkpt lat="36.687210" lon="-118.856650">
        <ele>2126.786</ele>
        <time>2018-12-30T00:10:15Z</time>
      </trkpt>
      <trkpt lat="36.687200" lon="-118.856650">
        <ele>2126.742</ele>
        <time>2018-12-30T00:10:35Z</time>
      </trkpt>
      <trkpt lat="36.687150" lon="-118.856630">
        <ele>2126.971</ele>
        <time>2018-12-30T00:10:55Z</time>
      </trkpt>
      <trkpt lat="36.687070" lon="-118.856600">
        <ele>2127.047</ele>
        <time>2018-12-30T00:11:15Z</time>
      </trkpt>
      <trkpt lat="36.687000" lon="-118.856580">
        <ele>2126.829</ele>
        <time>2018-12-30T00:11:35Z</time>
      </trkpt>
      <trkpt lat="36.686910" lon="-118.856570">
        <ele>2126.221</ele>
        <time>2018-12-30T00:11:55Z</time>
      </trkpt>
      <trkpt lat="36.686790" lon="-118.856560">
        <ele>2125.208</ele>
        <time>2018-12-30T00:12:15Z</time>
      </trkpt>
      <trkpt lat="36.686730" lon="-118.856560">
        <ele>2124.577</ele>
        <time>2018-12-30T00:12:35Z</time>
      </trkpt>
      <trkpt lat="36.686650" lon="-118.856560">
        <ele>2123.575</ele>
        <time>2018-12-30T00:12:55Z</time>
      </trkpt>
      <trkpt lat="36.686560" lon="-118.856580">
        <ele>2122.210</ele>
        <time>2018-12-30T00:13:15Z</time>
      </trkpt>
      <trkpt lat="36.686480" lon="-118.856600">
        <ele>2121.590</ele>
        <time>2018-12-30T00:13:35Z</time>
      </trkpt>
      <trkpt lat="36.686400" lon="-118.856630">
        <ele>2121.034</ele>
        <time>2018-12-30T00:13:55Z</time>
      </trkpt>
      <trkpt lat="36.686310" lon="-118.856680">
        <ele>2120.384</ele>
        <time>2018-12-30T00:14:15Z</time>
      </trkpt>
      <trkpt lat="36.686240" lon="-118.856710">
        <ele>2119.890</ele>
        <time>2018-12-30T00:14:35Z</time>
      </trkpt>
      <trkpt lat="36.686150" lon="-118.856770">
        <ele>2119.159</ele>
        <time>2018-12-30T00:14:55Z</time>
      </trkpt>
      <trkpt lat="36.686040" lon="-118.856850">
        <ele>2118.021</ele>
        <time>2018-12-30T00:15:15Z</time>
      </trkpt>
      <trkpt lat="36.685740" lon="-118.857100">
        <ele>2115.441</ele>
        <time>2018-12-30T00:15:35Z</time>
      </trkpt>
      <trkpt lat="36.685570" lon="-118.857240">
        <ele>2114.405</ele>
        <time>2018-12-30T00:15:55Z</time>
      </trkpt>
      <trkpt lat="36.685340" lon="-118.857430">
        <ele>2113.208</ele>
        <time>2018-12-30T00:16:15Z</time>
      </trkpt>
      <trkpt lat="36.685250" lon="-118.857490">
        <ele>2113.035</ele>
        <time>2018-12-30T00:16:35Z</time>
      </trkpt>
      <trkpt lat="36.685180" lon="-118.857530">
        <ele>2113.093</ele>
        <time>2018-12-30T00:16:55Z</time>
      </trkpt>
      <trkpt lat="36.685090" lon="-118.857580">
        <ele>2112.968</ele>
        <time>2018-12-30T00:17:15Z</time>
      </trkpt>
      <trkpt lat="36.685000" lon="-118.857610">
        <ele>2113.048</ele>
        <time>2018-12-30T00:17:35Z</time>
      </trkpt>
      <trkpt lat="36.684860" lon="-118.857650">
        <ele>2113.362</ele>
        <time>2018-12-30T00:17:55Z</time>
      </trkpt>
      <trkpt lat="36.684730" lon="-118.857670">
        <ele>2113.262</ele>
        <time>2018-12-30T00:18:15Z</time>
      </trkpt>
      <trkpt lat="36.684670" lon="-118.857680">
        <ele>2113.328</ele>
        <time>2018-12-30T00:18:35Z</time>
      </trkpt>
      <trkpt lat="36.684590" lon="-118.857680">
        <ele>2113.547</ele>
        <time>2018-12-30T00:18:55Z</time>
      </trkpt>
      <trkpt lat="36.684550" lon="-118.857670">
        <ele>2113.631</ele>
        <time>2018-12-30T00:19:15Z</time>
      </trkpt>
      <trkpt lat="36.684520" lon="-118.857670">
        <ele>2113.561</ele>
        <time>2018-12-30T00:19:35Z</time>
      </trkpt>
      <trkpt lat="36.684450" lon="-118.857660">
        <ele>2113.507</ele>
        <time>2018-12-30T00:19:55Z</time>
      </trkpt>
      <trkpt lat="36.684340" lon="-118.857640">
        <ele>2113.508</ele>
        <time>2018-12-30T00:20:15Z</time>
      </trkpt>
      <trkpt lat="36.684240" lon="-118.857610">
        <ele>2113.386</ele>
        <time>2018-12-30T00:20:35Z</time>
      </trkpt>
      <trkpt lat="36.684190" lon="-118.857590">
        <ele>2113.124</ele>
        <time>2018-12-30T00:20:55Z</time>
      </trkpt>
      <trkpt lat="36.684130" lon="-118.857560">
        <ele>2112.829</ele>
        <time>2018-12-30T00:21:15Z</time>
      </trkpt>
      <trkpt lat="36.684070" lon="-118.857540">
        <ele>2112.589</ele>
        <time>2018-12-30T00:21:35Z</time>
      </trkpt>
      <trkpt lat="36.684030" lon="-118.857510">
        <ele>2112.393</ele>
        <time>2018-12-30T00:21:55Z</time>
      </trkpt>
      <trkpt lat="36.683990" lon="-118.857490">
        <ele>2111.633</ele>
        <time>2018-12-30T00:22:15Z</time>
      </trkpt>
      <trkpt lat="36.683880" lon="-118.857410">
        <ele>2110.059</ele>
        <time>2018-12-30T00:22:35Z</time>
      </trkpt>
      <trkpt lat="36.683830" lon="-118.857370">
        <ele>2109.488</ele>
        <time>2018-12-30T00:22:55Z</time>
      </trkpt>
      <trkpt lat="36.683770" lon="-118.857310">
        <ele>2108.567</ele>
        <time>2018-12-30T00:23:15Z</time>
      </trkpt>
      <trkpt lat="36.683650" lon="-118.857180">
        <ele>2106.681</ele>
        <time>2018-12-30T00:23:35Z</time>
      </trkpt>
      <trkpt lat="36.683570" lon="-118.857070">
        <ele>2105.619</ele>
        <time>2018-12-30T00:23:55Z</time>
      </trkpt>
      <trkpt lat="36.683500" lon="-118.856960">
        <ele>2104.808</ele>
        <time>2018-12-30T00:24:15Z</time>
      </trkpt>
      <trkpt lat="36.683450" lon="-118.856870">
        <ele>2104.249</ele>
        <time>2018-12-30T00:24:35Z</time>
      </trkpt>
      <trkpt lat="36.683410" lon="-118.856790">
        <ele>2103.897</ele>
        <time>2018-12-30T00:24:55Z</time>
      </trkpt>
      <trkpt lat="36.683370" lon="-118.856670">
        <ele>2103.642</ele>
        <time>2018-12-30T00:25:15Z</time>
      </trkpt>
      <trkpt lat="36.683320" lon="-118.856540">
        <ele>2103.342</ele>
        <time>2018-12-30T00:25:35Z</time>
      </trkpt>
      <trkpt lat="36.683230" lon="-118.856300">
        <ele>2102.486</ele>
        <time>2018-12-30T00:25:55Z</time>
      </trkpt>
      <trkpt lat="36.683190" lon="-118.856220">
        <ele>2101.816</ele>
        <time>2018-12-30T00:26:15Z</time>
      </trkpt>
      <trkpt lat="36.683160" lon="-118.856170">
        <ele>2101.282</ele>
        <time>2018-12-30T00:26:35Z</time>
      </trkpt>
      <trkpt lat="36.683140" lon="-118.856120">
        <ele>2100.891</ele>
        <time>2018-12-30T00:26:55Z</time>
      </trkpt>
      <trkpt lat="36.683060" lon="-118.856010">
        <ele>2099.158</ele>
        <time>2018-12-30T00:27:15Z</time>
      </trkpt>
      <trkpt lat="36.683000" lon="-118.855930">
        <ele>2098.152</ele>
        <time>2018-12-30T00:27:35Z</time>
      </trkpt>
      <trkpt lat="36.682930" lon="-118.855860">
        <ele>2097.217</ele>
        <time>2018-12-30T00:27:55Z</time>
      </trkpt>
      <trkpt lat="36.682880" lon="-118.855810">
        <ele>2096.408</ele>
        <time>2018-12-30T00:28:15Z</time>
      </trkpt>
      <trkpt lat="36.682830" lon="-118.855780">
        <ele>2095.128</ele>
        <time>2018-12-30T00:28:35Z</time>
      </trkpt>
      <trkpt lat="36.682760" lon="-118.855730">
        <ele>2093.286</ele>
        <time>2018-12-30T00:28:55Z</time>
      </trkpt>
      <trkpt lat="36.682710" lon="-118.855700">
        <ele>2091.751</ele>
        <time>2018-12-30T00:29:15Z</time>
      </trkpt>
      <trkpt lat="36.682660" lon="-118.855670">
        <ele>2090.331</ele>
        <time>2018-12-30T00:29:35Z</time>
      </trkpt>
      <trkpt lat="36.682600" lon="-118.855640">
        <ele>2090.045</ele>
        <time>2018-12-30T00:29:55Z</time>
      </trkpt>
      <trkpt lat="36.682530" lon="-118.855620">
        <ele>2090.725</ele>
        <time>2018-12-30T00:30:15Z</time>
      </trkpt>
      <trkpt lat="36.682450" lon="-118.855600">
        <ele>2091.861</ele>
        <time>2018-12-30T00:30:35Z</time>
      </trkpt>
      <trkpt lat="36.682410" lon="-118.855590">
        <ele>2092.460</ele>
        <time>2018-12-30T00:30:55Z</time>
      </trkpt>
      <trkpt lat="36.682360" lon="-118.855580">
        <ele>2093.386</ele>
        <time>2018-12-30T00:31:15Z</time>
      </trkpt>
      <trkpt lat="36.682280" lon="-118.855580">
        <ele>2094.060</ele>
        <time>2018-12-30T00:31:35Z</time>
      </trkpt>
      <trkpt lat="36.682240" lon="-118.855580">
        <ele>2094.426</ele>
        <time>2018-12-30T00:31:55Z</time>
      </trkpt>
      <trkpt lat="36.682170" lon="-118.855590">
        <ele>2094.708</ele>
        <time>2018-12-30T00:32:15Z</time>
      </trkpt>
      <trkpt lat="36.682050" lon="-118.855610">
        <ele>2094.981</ele>
        <time>2018-12-30T00:32:35Z</time>
      </trkpt>
      <trkpt lat="36.681870" lon="-118.855640">
        <ele>2094.329</ele>
        <time>2018-12-30T00:32:55Z</time>
      </trkpt>
      <trkpt lat="36.681700" lon="-118.855670">
        <ele>2092.724</ele>
        <time>2018-12-30T00:33:15Z</time>
      </trkpt>
      <trkpt lat="36.681560" lon="-118.855680">
        <ele>2091.244</ele>
        <time>2018-12-30T00:33:35Z</time>
      </trkpt>
      <trkpt lat="36.681500" lon="-118.855680">
        <ele>2090.458</ele>
        <time>2018-12-30T00:33:55Z</time>
      </trkpt>
      <trkpt lat="36.681440" lon="-118.855680">
        <ele>2089.458</ele>
        <time>2018-12-30T00:34:15Z</time>
      </trkpt>
      <trkpt lat="36.681360" lon="-118.855670">
        <ele>2088.294</ele>
        <time>2018-12-30T00:34:35Z</time>
      </trkpt>
      <trkpt lat="36.681270" lon="-118.855650">
        <ele>2087.013</ele>
        <time>2018-12-30T00:34:55Z</time>
      </trkpt>
      <trkpt lat="36.681200" lon="-118.855630">
        <ele>2086.957</ele>
        <time>2018-12-30T00:35:15Z</time>
      </trkpt>
      <trkpt lat="36.681120" lon="-118.855600">
        <ele>2087.000</ele>
        <time>2018-12-30T00:35:35Z</time>
      </trkpt>
      <trkpt lat="36.681040" lon="-118.855570">
        <ele>2086.720</ele>
        <time>2018-12-30T00:35:55Z</time>
      </trkpt>
      <trkpt lat="36.680980" lon="-118.855530">
        <ele>2086.308</ele>
        <time>2018-12-30T00:36:15Z</time>
      </trkpt>
      <trkpt lat="36.680910" lon="-118.855490">
        <ele>2085.758</ele>
        <time>2018-12-30T00:36:35Z</time>
      </trkpt>
      <trkpt lat="36.680860" lon="-118.855460">
        <ele>2085.266</ele>
        <time>2018-12-30T00:36:55Z</time>
      </trkpt>
      <trkpt lat="36.680820" lon="-118.855430">
        <ele>2084.821</ele>
        <time>2018-12-30T00:37:15Z</time>
      </trkpt>
      <trkpt lat="36.680730" lon="-118.855360">
        <ele>2085.131</ele>
        <time>2018-12-30T00:37:35Z</time>
      </trkpt>
      <trkpt lat="36.680670" lon="-118.855300">
        <ele>2085.495</ele>
        <time>2018-12-30T00:37:55Z</time>
      </trkpt>
      <trkpt lat="36.680640" lon="-118.855280">
        <ele>2085.365</ele>
        <time>2018-12-30T00:38:15Z</time>
      </trkpt>
      <trkpt lat="36.680570" lon="-118.855210">
        <ele>2085.471</ele>
        <time>2018-12-30T00:38:35Z</time>
      </trkpt>
      <trkpt lat="36.680350" lon="-118.854990">
        <ele>2084.870</ele>
        <time>2018-12-30T00:38:55Z</time>
      </trkpt>
      <trkpt lat="36.680070" lon="-118.854720">
        <ele>2081.411</ele>
        <time>2018-12-30T00:39:15Z</time>
      </trkpt>
      <trkpt lat="36.679700" lon="-118.854360">
        <ele>2078.321</ele>
        <time>2018-12-30T00:39:35Z</time>
      </trkpt>
      <trkpt lat="36.679570" lon="-118.854240">
        <ele>2076.503</ele>
        <time>2018-12-30T00:39:55Z</time>
      </trkpt>
      <trkpt lat="36.679480" lon="-118.854150">
        <ele>2075.208</ele>
        <time>2018-12-30T00:40:15Z</time>
      </trkpt>
      <trkpt lat="36.679400" lon="-118.854080">
        <ele>2073.914</ele>
        <time>2018-12-30T00:40:35Z</time>
      </trkpt>
      <trkpt lat="36.679330" lon="-118.854020">
        <ele>2072.792</ele>
        <time>2018-12-30T00:40:55Z</time>
      </trkpt>
      <trkpt lat="36.679220" lon="-118.853940">
        <ele>2071.547</ele>
        <time>2018-12-30T00:41:15Z</time>
      </trkpt>
      <trkpt lat="36.679100" lon="-118.853860">
        <ele>2070.897</ele>
        <time>2018-12-30T00:41:35Z</time>
      </trkpt>
      <trkpt lat="36.679000" lon="-118.853800">
        <ele>2070.791</ele>
        <time>2018-12-30T00:41:55Z</time>
      </trkpt>
      <trkpt lat="36.678920" lon="-118.853760">
        <ele>2070.481</ele>
        <time>2018-12-30T00:42:15Z</time>
      </trkpt>
      <trkpt lat="36.678820" lon="-118.853710">
        <ele>2070.287</ele>
        <time>2018-12-30T00:42:35Z</time>
      </trkpt>
      <trkpt lat="36.678720" lon="-118.853680">
        <ele>2069.616</ele>
        <time>2018-12-30T00:42:55Z</time>
      </trkpt>
      <trkpt lat="36.678640" lon="-118.853650">
        <ele>2069.498</ele>
        <time>2018-12-30T00:43:15Z</time>
      </trkpt>
      <trkpt lat="36.678540" lon="-118.853630">
        <ele>2068.615</ele>
        <time>2018-12-30T00:43:35Z</time>
      </trkpt>
      <trkpt lat="36.678420" lon="-118.853600">
        <ele>2068.026</ele>
        <time>2018-12-30T00:43:55Z</time>
      </trkpt>
      <trkpt lat="36.678290" lon="-118.853590">
        <ele>2067.108</ele>
        <time>2018-12-30T00:44:15Z</time>
      </trkpt>
      <trkpt lat="36.678140" lon="-118.853570">
        <ele>2066.682</ele>
        <time>2018-12-30T00:44:35Z</time>
      </trkpt>
      <trkpt lat="36.677710" lon="-118.853540">
        <ele>2066.810</ele>
        <time>2018-12-30T00:44:55Z</time>
      </trkpt>
      <trkpt lat="36.676670" lon="-118.853470">
        <ele>2060.775</ele>
        <time>2018-12-30T00:45:15Z</time>
      </trkpt>
      <trkpt lat="36.675830" lon="-118.853410">
        <ele>2056.345</ele>
        <time>2018-12-30T00:45:35Z</time>
      </trkpt>
      <trkpt lat="36.675620" lon="-118.853390">
        <ele>2055.189</ele>
        <time>2018-12-30T00:45:55Z</time>
      </trkpt>
      <trkpt lat="36.675230" lon="-118.853360">
        <ele>2053.519</ele>
        <time>2018-12-30T00:46:15Z</time>
      </trkpt>
      <trkpt lat="36.674980" lon="-118.853350">
        <ele>2052.445</ele>
        <time>2018-12-30T00:46:35Z</time>
      </trkpt>
      <trkpt lat="36.674790" lon="-118.853330">
        <ele>2051.444</ele>
        <time>2018-12-30T00:46:55Z</time>
      </trkpt>
      <trkpt lat="36.674720" lon="-118.853320">
        <ele>2050.918</ele>
        <time>2018-12-30T00:47:15Z</time>
      </trkpt>
      <trkpt lat="36.674650" lon="-118.853310">
        <ele>2050.498</ele>
        <time>2018-12-30T00:47:35Z</time>
      </trkpt>
      <trkpt lat="36.674580" lon="-118.853290">
        <ele>2049.917</ele>
        <time>2018-12-30T00:47:55Z</time>
      </trkpt>
      <trkpt lat="36.674520" lon="-118.853270">
        <ele>2049.308</ele>
        <time>2018-12-30T00:48:15Z</time>
      </trkpt>
      <trkpt lat="36.674420" lon="-118.853220">
        <ele>2048.374</ele>
        <time>2018-12-30T00:48:35Z</time>
      </trkpt>
      <trkpt lat="36.674320" lon="-118.853170">
        <ele>2047.522</ele>
        <time>2018-12-30T00:48:55Z</time>
      </trkpt>
      <trkpt lat="36.674250" lon="-118.853130">
        <ele>2046.957</ele>
        <time>2018-12-30T00:49:15Z</time>
      </trkpt>
      <trkpt lat="36.674180" lon="-118.853070">
        <ele>2046.417</ele>
        <time>2018-12-30T00:49:35Z</time>
      </trkpt>
      <trkpt lat="36.674090" lon="-118.853000">
        <ele>2045.821</ele>
        <time>2018-12-30T00:49:55Z</time>
      </trkpt>
      <trkpt lat="36.673990" lon="-118.852890">
        <ele>2045.161</ele>
        <time>2018-12-30T00:50:15Z</time>
      </trkpt>
      <trkpt lat="36.673890" lon="-118.852770">
        <ele>2044.187</ele>
        <time>2018-12-30T00:50:35Z</time>
      </trkpt>
      <trkpt lat="36.673840" lon="-118.852690">
        <ele>2043.786</ele>
        <time>2018-12-30T00:50:55Z</time>
      </trkpt>
      <trkpt lat="36.673790" lon="-118.852610">
        <ele>2043.111</ele>
        <time>2018-12-30T00:51:15Z</time>
      </trkpt>
      <trkpt lat="36.673760" lon="-118.852540">
        <ele>2042.621</ele>
        <time>2018-12-30T00:51:35Z</time>
      </trkpt>
      <trkpt lat="36.673720" lon="-118.852460">
        <ele>2042.003</ele>
        <time>2018-12-30T00:51:55Z</time>
      </trkpt>
      <trkpt lat="36.673690" lon="-118.852390">
        <ele>2041.608</ele>
        <time>2018-12-30T00:52:15Z</time>
      </trkpt>
      <trkpt lat="36.673660" lon="-118.852310">
        <ele>2041.064</ele>
        <time>2018-12-30T00:52:35Z</time>
      </trkpt>
      <trkpt lat="36.673630" lon="-118.852240">
        <ele>2040.472</ele>
        <time>2018-12-30T00:52:55Z</time>
      </trkpt>
      <trkpt lat="36.673620" lon="-118.852190">
        <ele>2040.167</ele>
        <time>2018-12-30T00:53:15Z</time>
      </trkpt>
      <trkpt lat="36.673600" lon="-118.852120">
        <ele>2039.687</ele>
        <time>2018-12-30T00:53:35Z</time>
      </trkpt>
      <trkpt lat="36.673580" lon="-118.852010">
        <ele>2038.751</ele>
        <time>2018-12-30T00:53:55Z</time>
      </trkpt>
      <trkpt lat="36.673570" lon="-118.851960">
        <ele>2038.311</ele>
        <time>2018-12-30T00:54:15Z</time>
      </trkpt>
      <trkpt lat="36.673560" lon="-118.851880">
        <ele>2037.697</ele>
        <time>2018-12-30T00:54:35Z</time>
      </trkpt>
      <trkpt lat="36.673560" lon="-118.851830">
        <ele>2037.366</ele>
        <time>2018-12-30T00:54:55Z</time>
      </trkpt>
      <trkpt lat="36.673550" lon="-118.851750">
        <ele>2036.754</ele>
        <time>2018-12-30T00:55:15Z</time>
      </trkpt>
      <trkpt lat="36.673550" lon="-118.851630">
        <ele>2036.056</ele>
        <time>2018-12-30T00:55:35Z</time>
      </trkpt>
      <trkpt lat="36.673550" lon="-118.851560">
        <ele>2035.611</ele>
        <time>2018-12-30T00:55:55Z</time>
      </trkpt>
      <trkpt lat="36.673550" lon="-118.851500">
        <ele>2035.308</ele>
        <time>2018-12-30T00:56:15Z</time>
      </trkpt>
      <trkpt lat="36.673560" lon="-118.851320">
        <ele>2034.848</ele>
        <time>2018-12-30T00:56:35Z</time>
      </trkpt>
      <trkpt lat="36.673570" lon="-118.851180">
        <ele>2034.436</ele>
        <time>2018-12-30T00:56:55Z</time>
      </trkpt>
      <trkpt lat="36.673570" lon="-118.850970">
        <ele>2033.981</ele>
        <time>2018-12-30T00:57:15Z</time>
      </trkpt>
      <trkpt lat="36.673570" lon="-118.850850">
        <ele>2033.751</ele>
        <time>2018-12-30T00:57:35Z</time>
      </trkpt>
      <trkpt lat="36.673560" lon="-118.850750">
        <ele>2033.425</ele>
        <time>2018-12-30T00:57:55Z</time>
      </trkpt>
      <trkpt lat="36.673530" lon="-118.850620">
        <ele>2033.165</ele>
        <time>2018-12-30T00:58:15Z</time>
      </trkpt>
      <trkpt lat="36.673510" lon="-118.850520">
        <ele>2033.081</ele>
        <time>2018-12-30T00:58:35Z</time>
      </trkpt>
      <trkpt lat="36.673480" lon="-118.850420">
        <ele>2032.730</ele>
        <time>2018-12-30T00:58:55Z</time>
      </trkpt>
      <trkpt lat="36.673430" lon="-118.850310">
        <ele>2032.261</ele>
        <time>2018-12-30T00:59:15Z</time>
      </trkpt>
      <trkpt lat="36.673370" lon="-118.850200">
        <ele>2031.421</ele>
        <time>2018-12-30T00:59:35Z</time>
      </trkpt>
      <trkpt lat="36.673310" lon="-118.850110">
        <ele>2030.413</ele>
        <time>2018-12-30T00:59:55Z</time>
      </trkpt>
      <trkpt lat="36.673260" lon="-118.850040">
        <ele>2029.708</ele>
        <time>2018-12-30T01:00:15Z</time>
      </trkpt>
      <trkpt lat="36.673200" lon="-118.849970">
        <ele>2029.029</ele>
        <time>2018-12-30T01:00:35Z</time>
      </trkpt>
      <trkpt lat="36.673130" lon="-118.849900">
        <ele>2028.577</ele>
        <time>2018-12-30T01:00:55Z</time>
      </trkpt>
      <trkpt lat="36.673060" lon="-118.849840">
        <ele>2028.552</ele>
        <time>2018-12-30T01:01:15Z</time>
      </trkpt>
      <trkpt lat="36.672990" lon="-118.849800">
        <ele>2028.322</ele>
        <time>2018-12-30T01:01:35Z</time>
      </trkpt>
      <trkpt lat="36.672920" lon="-118.849750">
        <ele>2028.096</ele>
        <time>2018-12-30T01:01:55Z</time>
      </trkpt>
      <trkpt lat="36.672840" lon="-118.849710">
        <ele>2026.726</ele>
        <time>2018-12-30T01:02:15Z</time>
      </trkpt>
      <trkpt lat="36.672810" lon="-118.849700">
        <ele>2026.142</ele>
        <time>2018-12-30T01:02:35Z</time>
      </trkpt>
      <trkpt lat="36.672750" lon="-118.849680">
        <ele>2025.141</ele>
        <time>2018-12-30T01:02:55Z</time>
      </trkpt>
      <trkpt lat="36.672700" lon="-118.849670">
        <ele>2024.212</ele>
        <time>2018-12-30T01:03:15Z</time>
      </trkpt>
      <trkpt lat="36.672630" lon="-118.849650">
        <ele>2023.232</ele>
        <time>2018-12-30T01:03:35Z</time>
      </trkpt>
      <trkpt lat="36.672570" lon="-118.849640">
        <ele>2023.205</ele>
        <time>2018-12-30T01:03:55Z</time>
      </trkpt>
      <trkpt lat="36.672500" lon="-118.849640">
        <ele>2023.008</ele>
        <time>2018-12-30T01:04:15Z</time>
      </trkpt>
      <trkpt lat="36.672420" lon="-118.849640">
        <ele>2022.724</ele>
        <time>2018-12-30T01:04:35Z</time>
      </trkpt>
      <trkpt lat="36.672370" lon="-118.849640">
        <ele>2022.692</ele>
        <time>2018-12-30T01:04:55Z</time>
      </trkpt>
      <trkpt lat="36.672310" lon="-118.849650">
        <ele>2022.567</ele>
        <time>2018-12-30T01:05:15Z</time>
      </trkpt>
      <trkpt lat="36.672260" lon="-118.849660">
        <ele>2022.397</ele>
        <time>2018-12-30T01:05:35Z</time>
      </trkpt>
      <trkpt lat="36.672100" lon="-118.849700">
        <ele>2021.771</ele>
        <time>2018-12-30T01:05:55Z</time>
      </trkpt>
      <trkpt lat="36.671610" lon="-118.849860">
        <ele>2020.061</ele>
        <time>2018-12-30T01:06:15Z</time>
      </trkpt>
      <trkpt lat="36.671420" lon="-118.849920">
        <ele>2020.317</ele>
        <time>2018-12-30T01:06:35Z</time>
      </trkpt>
      <trkpt lat="36.670390" lon="-118.850230">
        <ele>2010.236</ele>
        <time>2018-12-30T01:06:55Z</time>
      </trkpt>
      <trkpt lat="36.669770" lon="-118.850420">
        <ele>2007.451</ele>
        <time>2018-12-30T01:07:15Z</time>
      </trkpt>
      <trkpt lat="36.669350" lon="-118.850540">
        <ele>2004.601</ele>
        <time>2018-12-30T01:07:35Z</time>
      </trkpt>
      <trkpt lat="36.669040" lon="-118.850640">
        <ele>2003.911</ele>
        <time>2018-12-30T01:07:55Z</time>
      </trkpt>
      <trkpt lat="36.668820" lon="-118.850710">
        <ele>2004.108</ele>
        <time>2018-12-30T01:08:15Z</time>
      </trkpt>
      <trkpt lat="36.668580" lon="-118.850770">
        <ele>2005.288</ele>
        <time>2018-12-30T01:08:35Z</time>
      </trkpt>
      <trkpt lat="36.668400" lon="-118.850820">
        <ele>2006.426</ele>
        <time>2018-12-30T01:08:55Z</time>
      </trkpt>
      <trkpt lat="36.668190" lon="-118.850850">
        <ele>2008.841</ele>
        <time>2018-12-30T01:09:15Z</time>
      </trkpt>
      <trkpt lat="36.668010" lon="-118.850870">
        <ele>2008.981</ele>
        <time>2018-12-30T01:09:35Z</time>
      </trkpt>
      <trkpt lat="36.667790" lon="-118.850870">
        <ele>2008.575</ele>
        <time>2018-12-30T01:09:55Z</time>
      </trkpt>
      <trkpt lat="36.667700" lon="-118.850870">
        <ele>2008.135</ele>
        <time>2018-12-30T01:10:15Z</time>
      </trkpt>
      <trkpt lat="36.667650" lon="-118.850860">
        <ele>2008.191</ele>
        <time>2018-12-30T01:10:35Z</time>
      </trkpt>
      <trkpt lat="36.667530" lon="-118.850860">
        <ele>2007.890</ele>
        <time>2018-12-30T01:10:55Z</time>
      </trkpt>
      <trkpt lat="36.667410" lon="-118.850840">
        <ele>2008.128</ele>
        <time>2018-12-30T01:11:15Z</time>
      </trkpt>
      <trkpt lat="36.667280" lon="-118.850820">
        <ele>2008.189</ele>
        <time>2018-12-30T01:11:35Z</time>
      </trkpt>
      <trkpt lat="36.667180" lon="-118.850810">
        <ele>2007.917</ele>
        <time>2018-12-30T01:11:55Z</time>
      </trkpt>
      <trkpt lat="36.667040" lon="-118.850780">
        <ele>2007.908</ele>
        <time>2018-12-30T01:12:15Z</time>
      </trkpt>
      <trkpt lat="36.666940" lon="-118.850750">
        <ele>2007.855</ele>
        <time>2018-12-30T01:12:35Z</time>
      </trkpt>
      <trkpt lat="36.666790" lon="-118.850710">
        <ele>2007.623</ele>
        <time>2018-12-30T01:12:55Z</time>
      </trkpt>
      <trkpt lat="36.666630" lon="-118.850650">
        <ele>2007.658</ele>
        <time>2018-12-30T01:13:15Z</time>
      </trkpt>
      <trkpt lat="36.666420" lon="-118.850570">
        <ele>2007.458</ele>
        <time>2018-12-30T01:13:35Z</time>
      </trkpt>
      <trkpt lat="36.666180" lon="-118.850450">
        <ele>2007.372</ele>
        <time>2018-12-30T01:13:55Z</time>
      </trkpt>
      <trkpt lat="36.666080" lon="-118.850400">
        <ele>2007.122</ele>
        <time>2018-12-30T01:14:15Z</time>
      </trkpt>
      <trkpt lat="36.666000" lon="-118.850350">
        <ele>2007.288</ele>
        <time>2018-12-30T01:14:35Z</time>
      </trkpt>
      <trkpt lat="36.665750" lon="-118.850190">
        <ele>2006.627</ele>
        <time>2018-12-30T01:14:55Z</time>
      </trkpt>
      <trkpt lat="36.665570" lon="-118.850050">
        <ele>2006.683</ele>
        <time>2018-12-30T01:15:15Z</time>
      </trkpt>
      <trkpt lat="36.665470" lon="-118.849970">
        <ele>2006.525</ele>
        <time>2018-12-30T01:15:35Z</time>
      </trkpt>
      <trkpt lat="36.665320" lon="-118.849840">
        <ele>2006.317</ele>
        <time>2018-12-30T01:15:55Z</time>
      </trkpt>
      <trkpt lat="36.665240" lon="-118.849760">
        <ele>2006.508</ele>
        <time>2018-12-30T01:16:15Z</time>
      </trkpt>
      <trkpt lat="36.665160" lon="-118.849680">
        <ele>2006.351</ele>
        <time>2018-12-30T01:16:35Z</time>
      </trkpt>
      <trkpt lat="36.665070" lon="-118.849580">
        <ele>2006.229</ele>
        <time>2018-12-30T01:16:55Z</time>
      </trkpt>
      <trkpt lat="36.664970" lon="-118.849470">
        <ele>2005.884</ele>
        <time>2018-12-30T01:17:15Z</time>
      </trkpt>
      <trkpt lat="36.664900" lon="-118.849390">
        <ele>2005.324</ele>
        <time>2018-12-30T01:17:35Z</time>
      </trkpt>
      <trkpt lat="36.664840" lon="-118.849310">
        <ele>2004.828</ele>
        <time>2018-12-30T01:17:55Z</time>
      </trkpt>
      <trkpt lat="36.664670" lon="-118.849080">
        <ele>2000.698</ele>
        <time>2018-12-30T01:18:15Z</time>
      </trkpt>
      <trkpt lat="36.664500" lon="-118.848820">
        <ele>1997.784</ele>
        <time>2018-12-30T01:18:35Z</time>
      </trkpt>
      <trkpt lat="36.664320" lon="-118.848500">
        <ele>1998.033</ele>
        <time>2018-12-30T01:18:55Z</time>
      </trkpt>
      <trkpt lat="36.664210" lon="-118.848270">
        <ele>1998.391</ele>
        <time>2018-12-30T01:19:15Z</time>
      </trkpt>
      <trkpt lat="36.664080" lon="-118.847960">
        <ele>1998.781</ele>
        <time>2018-12-30T01:19:35Z</time>
      </trkpt>
      <trkpt lat="36.663990" lon="-118.847720">
        <ele>1997.819</ele>
        <time>2018-12-30T01:19:55Z</time>
      </trkpt>
      <trkpt lat="36.663910" lon="-118.847460">
        <ele>1996.008</ele>
        <time>2018-12-30T01:20:15Z</time>
      </trkpt>
      <trkpt lat="36.663850" lon="-118.847220">
        <ele>1994.022</ele>
        <time>2018-12-30T01:20:35Z</time>
      </trkpt>
      <trkpt lat="36.663800" lon="-118.846980">
        <ele>1992.380</ele>
        <time>2018-12-30T01:20:55Z</time>
      </trkpt>
      <trkpt lat="36.663780" lon="-118.846850">
        <ele>1991.745</ele>
        <time>2018-12-30T01:21:15Z</time>
      </trkpt>
      <trkpt lat="36.663740" lon="-118.846630">
        <ele>1990.995</ele>
        <time>2018-12-30T01:21:35Z</time>
      </trkpt>
      <trkpt lat="36.663710" lon="-118.846410">
        <ele>1990.959</ele>
        <time>2018-12-30T01:21:55Z</time>
      </trkpt>
      <trkpt lat="36.663700" lon="-118.846250">
        <ele>1991.289</ele>
        <time>2018-12-30T01:22:15Z</time>
      </trkpt>
      <trkpt lat="36.663690" lon="-118.846070">
        <ele>1990.415</ele>
        <time>2018-12-30T01:22:35Z</time>
      </trkpt>
      <trkpt lat="36.663680" lon="-118.845720">
        <ele>1988.644</ele>
        <time>2018-12-30T01:22:55Z</time>
      </trkpt>
      <trkpt lat="36.663680" lon="-118.845560">
        <ele>1988.373</ele>
        <time>2018-12-30T01:23:15Z</time>
      </trkpt>
      <trkpt lat="36.663690" lon="-118.845420">
        <ele>1988.085</ele>
        <time>2018-12-30T01:23:35Z</time>
      </trkpt>
      <trkpt lat="36.663700" lon="-118.845220">
        <ele>1987.613</ele>
        <time>2018-12-30T01:23:55Z</time>
      </trkpt>
      <trkpt lat="36.663730" lon="-118.845010">
        <ele>1986.908</ele>
        <time>2018-12-30T01:24:15Z</time>
      </trkpt>
      <trkpt lat="36.663770" lon="-118.844690">
        <ele>1985.670</ele>
        <time>2018-12-30T01:24:35Z</time>
      </trkpt>
      <trkpt lat="36.663810" lon="-118.844510">
        <ele>1985.068</ele>
        <time>2018-12-30T01:24:55Z</time>
      </trkpt>
      <trkpt lat="36.663940" lon="-118.843800">
        <ele>1983.653</ele>
        <time>2018-12-30T01:25:15Z</time>
      </trkpt>
      <trkpt lat="36.664160" lon="-118.842710">
        <ele>1977.463</ele>
        <time>2018-12-30T01:25:35Z</time>
      </trkpt>
      <trkpt lat="36.665000" lon="-118.838410">
        <ele>1953.617</ele>
        <time>2018-12-30T01:25:55Z</time>
      </trkpt>
      <trkpt lat="36.665050" lon="-118.838160">
        <ele>1952.987</ele>
        <time>2018-12-30T01:26:15Z</time>
      </trkpt>
      <trkpt lat="36.665110" lon="-118.837910">
        <ele>1954.433</ele>
        <time>2018-12-30T01:26:35Z</time>
      </trkpt>
      <trkpt lat="36.665230" lon="-118.837260">
        <ele>1961.722</ele>
        <time>2018-12-30T01:26:55Z</time>
      </trkpt>
      <trkpt lat="36.665330" lon="-118.836790">
        <ele>1964.177</ele>
        <time>2018-12-30T01:27:15Z</time>
      </trkpt>
      <trkpt lat="36.665470" lon="-118.836060">
        <ele>1964.161</ele>
        <time>2018-12-30T01:27:35Z</time>
      </trkpt>
      <trkpt lat="36.665570" lon="-118.835570">
        <ele>1963.727</ele>
        <time>2018-12-30T01:27:55Z</time>
      </trkpt>
      <trkpt lat="36.665610" lon="-118.835330">
        <ele>1962.708</ele>
        <time>2018-12-30T01:28:15Z</time>
      </trkpt>
      <trkpt lat="36.665650" lon="-118.835140">
        <ele>1962.470</ele>
        <time>2018-12-30T01:28:35Z</time>
      </trkpt>
      <trkpt lat="36.665670" lon="-118.834980">
        <ele>1961.518</ele>
        <time>2018-12-30T01:28:55Z</time>
      </trkpt>
      <trkpt lat="36.665690" lon="-118.834800">
        <ele>1960.873</ele>
        <time>2018-12-30T01:29:15Z</time>
      </trkpt>
      <trkpt lat="36.665690" lon="-118.834690">
        <ele>1960.653</ele>
        <time>2018-12-30T01:29:35Z</time>
      </trkpt>
      <trkpt lat="36.665700" lon="-118.834580">
        <ele>1960.577</ele>
        <time>2018-12-30T01:29:55Z</time>
      </trkpt>
      <trkpt lat="36.665690" lon="-118.834220">
        <ele>1965.037</ele>
        <time>2018-12-30T01:30:15Z</time>
      </trkpt>
      <trkpt lat="36.665660" lon="-118.833890">
        <ele>1965.183</ele>
        <time>2018-12-30T01:30:35Z</time>
      </trkpt>
      <trkpt lat="36.665640" lon="-118.833770">
        <ele>1965.292</ele>
        <time>2018-12-30T01:30:55Z</time>
      </trkpt>
      <trkpt lat="36.665610" lon="-118.833600">
        <ele>1965.421</ele>
        <time>2018-12-30T01:31:15Z</time>
      </trkpt>
      <trkpt lat="36.665560" lon="-118.833420">
        <ele>1965.741</ele>
        <time>2018-12-30T01:31:35Z</time>
      </trkpt>
      <trkpt lat="36.665500" lon="-118.833200">
        <ele>1966.305</ele>
        <time>2018-12-30T01:31:55Z</time>
      </trkpt>
      <trkpt lat="36.665470" lon="-118.833100">
        <ele>1966.808</ele>
        <time>2018-12-30T01:32:15Z</time>
      </trkpt>
      <trkpt lat="36.665430" lon="-118.832980">
        <ele>1967.485</ele>
        <time>2018-12-30T01:32:35Z</time>
      </trkpt>
      <trkpt lat="36.665330" lon="-118.832760">
        <ele>1968.823</ele>
        <time>2018-12-30T01:32:55Z</time>
      </trkpt>
      <trkpt lat="36.665240" lon="-118.832580">
        <ele>1969.878</ele>
        <time>2018-12-30T01:33:15Z</time>
      </trkpt>
      <trkpt lat="36.665180" lon="-118.832460">
        <ele>1970.498</ele>
        <time>2018-12-30T01:33:35Z</time>
      </trkpt>
      <trkpt lat="36.665100" lon="-118.832340">
        <ele>1970.762</ele>
        <time>2018-12-30T01:33:55Z</time>
      </trkpt>
      <trkpt lat="36.665020" lon="-118.832190">
        <ele>1970.792</ele>
        <time>2018-12-30T01:34:15Z</time>
      </trkpt>
      <trkpt lat="36.664920" lon="-118.832060">
        <ele>1970.388</ele>
        <time>2018-12-30T01:34:35Z</time>
      </trkpt>
      <trkpt lat="36.664820" lon="-118.831960">
        <ele>1969.867</ele>
        <time>2018-12-30T01:34:55Z</time>
      </trkpt>
      <trkpt lat="36.664690" lon="-118.831860">
        <ele>1969.228</ele>
        <time>2018-12-30T01:35:15Z</time>
      </trkpt>
      <trkpt lat="36.664560" lon="-118.831760">
        <ele>1968.689</ele>
        <time>2018-12-30T01:35:35Z</time>
      </trkpt>
      <trkpt lat="36.664470" lon="-118.831730">
        <ele>1968.417</ele>
        <time>2018-12-30T01:35:55Z</time>
      </trkpt>
      <trkpt lat="36.664380" lon="-118.831680">
        <ele>1968.208</ele>
        <time>2018-12-30T01:36:15Z</time>
      </trkpt>
      <trkpt lat="36.664230" lon="-118.831640">
        <ele>1967.815</ele>
        <time>2018-12-30T01:36:35Z</time>
      </trkpt>
      <trkpt lat="36.664110" lon="-118.831610">
        <ele>1967.623</ele>
        <time>2018-12-30T01:36:55Z</time>
      </trkpt>
      <trkpt lat="36.663920" lon="-118.831600">
        <ele>1967.688</ele>
        <time>2018-12-30T01:37:15Z</time>
      </trkpt>
      <trkpt lat="36.663780" lon="-118.831610">
        <ele>1968.018</ele>
        <time>2018-12-30T01:37:35Z</time>
      </trkpt>
      <trkpt lat="36.663630" lon="-118.831640">
        <ele>1968.772</ele>
        <time>2018-12-30T01:37:55Z</time>
      </trkpt>
      <trkpt lat="36.663500" lon="-118.831690">
        <ele>1969.152</ele>
        <time>2018-12-30T01:38:15Z</time>
      </trkpt>
      <trkpt lat="36.663400" lon="-118.831750">
        <ele>1969.058</ele>
        <time>2018-12-30T01:38:35Z</time>
      </trkpt>
      <trkpt lat="36.663300" lon="-118.831820">
        <ele>1968.827</ele>
        <time>2018-12-30T01:38:55Z</time>
      </trkpt>
      <trkpt lat="36.663200" lon="-118.831900">
        <ele>1968.663</ele>
        <time>2018-12-30T01:39:15Z</time>
      </trkpt>
      <trkpt lat="36.663100" lon="-118.831990">
        <ele>1969.544</ele>
        <time>2018-12-30T01:39:35Z</time>
      </trkpt>
      <trkpt lat="36.663000" lon="-118.832100">
        <ele>1970.918</ele>
        <time>2018-12-30T01:39:55Z</time>
      </trkpt>
      <trkpt lat="36.662890" lon="-118.832260">
        <ele>1972.908</ele>
        <time>2018-12-30T01:40:15Z</time>
      </trkpt>
      <trkpt lat="36.662810" lon="-118.832370">
        <ele>1974.819</ele>
        <time>2018-12-30T01:40:35Z</time>
      </trkpt>
      <trkpt lat="36.662770" lon="-118.832470">
        <ele>1975.447</ele>
        <time>2018-12-30T01:40:55Z</time>
      </trkpt>
      <trkpt lat="36.662730" lon="-118.832560">
        <ele>1975.892</ele>
        <time>2018-12-30T01:41:15Z</time>
      </trkpt>
      <trkpt lat="36.662700" lon="-118.832640">
        <ele>1975.962</ele>
        <time>2018-12-30T01:41:35Z</time>
      </trkpt>
      <trkpt lat="36.662670" lon="-118.832770">
        <ele>1975.896</ele>
        <time>2018-12-30T01:41:55Z</time>
      </trkpt>
      <trkpt lat="36.662610" lon="-118.833030">
        <ele>1976.346</ele>
        <time>2018-12-30T01:42:15Z</time>
      </trkpt>
      <trkpt lat="36.662490" lon="-118.833520">
        <ele>1979.332</ele>
        <time>2018-12-30T01:42:35Z</time>
      </trkpt>
      <trkpt lat="36.662400" lon="-118.833850">
        <ele>1979.681</ele>
        <time>2018-12-30T01:42:55Z</time>
      </trkpt>
      <trkpt lat="36.662340" lon="-118.834070">
        <ele>1979.812</ele>
        <time>2018-12-30T01:43:15Z</time>
      </trkpt>
      <trkpt lat="36.662290" lon="-118.834240">
        <ele>1980.132</ele>
        <time>2018-12-30T01:43:35Z</time>
      </trkpt>
      <trkpt lat="36.662240" lon="-118.834370">
        <ele>1980.605</ele>
        <time>2018-12-30T01:43:55Z</time>
      </trkpt>
      <trkpt lat="36.662180" lon="-118.834500">
        <ele>1981.408</ele>
        <time>2018-12-30T01:44:15Z</time>
      </trkpt>
      <trkpt lat="36.662120" lon="-118.834600">
        <ele>1982.394</ele>
        <time>2018-12-30T01:44:35Z</time>
      </trkpt>
      <trkpt lat="36.662070" lon="-118.834690">
        <ele>1983.182</ele>
        <time>2018-12-30T01:44:55Z</time>
      </trkpt>
      <trkpt lat="36.662050" lon="-118.834730">
        <ele>1983.437</ele>
        <time>2018-12-30T01:45:15Z</time>
      </trkpt>
      <trkpt lat="36.662010" lon="-118.834780">
        <ele>1984.077</ele>
        <time>2018-12-30T01:45:35Z</time>
      </trkpt>
      <trkpt lat="36.661980" lon="-118.834820">
        <ele>1984.521</ele>
        <time>2018-12-30T01:45:55Z</time>
      </trkpt>
      <trkpt lat="36.661940" lon="-118.834870">
        <ele>1985.191</ele>
        <time>2018-12-30T01:46:15Z</time>
      </trkpt>
      <trkpt lat="36.661890" lon="-118.834930">
        <ele>1986.167</ele>
        <time>2018-12-30T01:46:35Z</time>
      </trkpt>
      <trkpt lat="36.661850" lon="-118.834980">
        <ele>1987.196</ele>
        <time>2018-12-30T01:46:55Z</time>
      </trkpt>
      <trkpt lat="36.661750" lon="-118.835080">
        <ele>1989.378</ele>
        <time>2018-12-30T01:47:15Z</time>
      </trkpt>
      <trkpt lat="36.661670" lon="-118.835150">
        <ele>1990.533</ele>
        <time>2018-12-30T01:47:35Z</time>
      </trkpt>
      <trkpt lat="36.661590" lon="-118.835210">
        <ele>1991.226</ele>
        <time>2018-12-30T01:47:55Z</time>
      </trkpt>
      <trkpt lat="36.661510" lon="-118.835260">
        <ele>1991.908</ele>
        <time>2018-12-30T01:48:15Z</time>
      </trkpt>
      <trkpt lat="36.661430" lon="-118.835310">
        <ele>1992.260</ele>
        <time>2018-12-30T01:48:35Z</time>
      </trkpt>
      <trkpt lat="36.661380" lon="-118.835330">
        <ele>1992.648</ele>
        <time>2018-12-30T01:48:55Z</time>
      </trkpt>
      <trkpt lat="36.661330" lon="-118.835360">
        <ele>1992.883</ele>
        <time>2018-12-30T01:49:15Z</time>
      </trkpt>
      <trkpt lat="36.661210" lon="-118.835410">
        <ele>1993.443</ele>
        <time>2018-12-30T01:49:35Z</time>
      </trkpt>
      <trkpt lat="36.661160" lon="-118.835420">
        <ele>1993.897</ele>
        <time>2018-12-30T01:49:55Z</time>
      </trkpt>
      <trkpt lat="36.661020" lon="-118.835480">
        <ele>1994.187</ele>
        <time>2018-12-30T01:50:15Z</time>
      </trkpt>
      <trkpt lat="36.660860" lon="-118.835540">
        <ele>1994.683</ele>
        <time>2018-12-30T01:50:35Z</time>
      </trkpt>
      <trkpt lat="36.660560" lon="-118.835660">
        <ele>1995.112</ele>
        <time>2018-12-30T01:50:55Z</time>
      </trkpt>
      <trkpt lat="36.660350" lon="-118.835740">
        <ele>1995.494</ele>
        <time>2018-12-30T01:51:15Z</time>
      </trkpt>
      <trkpt lat="36.659790" lon="-118.835960">
        <ele>1997.257</ele>
        <time>2018-12-30T01:51:35Z</time>
      </trkpt>
      <trkpt lat="36.659640" lon="-118.836020">
        <ele>1997.922</ele>
        <time>2018-12-30T01:51:55Z</time>
      </trkpt>
      <trkpt lat="36.659440" lon="-118.836100">
        <ele>2000.108</ele>
        <time>2018-12-30T01:52:15Z</time>
      </trkpt>
      <trkpt lat="36.659350" lon="-118.836130">
        <ele>2001.462</ele>
        <time>2018-12-30T01:52:35Z</time>
      </trkpt>
      <trkpt lat="36.659150" lon="-118.836230">
        <ele>2003.880</ele>
        <time>2018-12-30T01:52:55Z</time>
      </trkpt>
      <trkpt lat="36.658840" lon="-118.836340">
        <ele>2005.225</ele>
        <time>2018-12-30T01:53:15Z</time>
      </trkpt>
      <trkpt lat="36.658720" lon="-118.836380">
        <ele>2005.425</ele>
        <time>2018-12-30T01:53:35Z</time>
      </trkpt>
      <trkpt lat="36.658640" lon="-118.836400">
        <ele>2005.749</ele>
        <time>2018-12-30T01:53:55Z</time>
      </trkpt>
      <trkpt lat="36.658560" lon="-118.836420">
        <ele>2005.919</ele>
        <time>2018-12-30T01:54:15Z</time>
      </trkpt>
      <trkpt lat="36.658500" lon="-118.836430">
        <ele>2006.275</ele>
        <time>2018-12-30T01:54:35Z</time>
      </trkpt>
      <trkpt lat="36.658370" lon="-118.836440">
        <ele>2006.964</ele>
        <time>2018-12-30T01:54:55Z</time>
      </trkpt>
      <trkpt lat="36.658230" lon="-118.836430">
        <ele>2008.242</ele>
        <time>2018-12-30T01:55:15Z</time>
      </trkpt>
      <trkpt lat="36.658130" lon="-118.836420">
        <ele>2008.922</ele>
        <time>2018-12-30T01:55:35Z</time>
      </trkpt>
      <trkpt lat="36.658120" lon="-118.836420">
        <ele>2008.914</ele>
        <time>2018-12-30T01:55:55Z</time>
      </trkpt>
      <trkpt lat="36.658020" lon="-118.836400">
        <ele>2009.508</ele>
        <time>2018-12-30T01:56:15Z</time>
      </trkpt>
      <trkpt lat="36.657910" lon="-118.836370">
        <ele>2010.337</ele>
        <time>2018-12-30T01:56:35Z</time>
      </trkpt>
      <trkpt lat="36.657820" lon="-118.836340">
        <ele>2010.385</ele>
        <time>2018-12-30T01:56:55Z</time>
      </trkpt>
      <trkpt lat="36.657760" lon="-118.836310">
        <ele>2010.570</ele>
        <time>2018-12-30T01:57:15Z</time>
      </trkpt>
      <trkpt lat="36.657570" lon="-118.836200">
        <ele>2011.820</ele>
        <time>2018-12-30T01:57:35Z</time>
      </trkpt>
      <trkpt lat="36.657420" lon="-118.836110">
        <ele>2013.254</ele>
        <time>2018-12-30T01:57:55Z</time>
      </trkpt>
      <trkpt lat="36.657190" lon="-118.835970">
        <ele>2015.644</ele>
        <time>2018-12-30T01:58:15Z</time>
      </trkpt>
      <trkpt lat="36.657100" lon="-118.835930">
        <ele>2016.810</ele>
        <time>2018-12-30T01:58:35Z</time>
      </trkpt>
      <trkpt lat="36.657020" lon="-118.835880">
        <ele>2017.419</ele>
        <time>2018-12-30T01:58:55Z</time>
      </trkpt>
      <trkpt lat="36.656910" lon="-118.835840">
        <ele>2017.727</ele>
        <time>2018-12-30T01:59:15Z</time>
      </trkpt>
      <trkpt lat="36.656810" lon="-118.835810">
        <ele>2017.968</ele>
        <time>2018-12-30T01:59:35Z</time>
      </trkpt>
      <trkpt lat="36.656740" lon="-118.835790">
        <ele>2018.114</ele>
        <time>2018-12-30T01:59:55Z</time>
      </trkpt>
      <trkpt lat="36.656650" lon="-118.835770">
        <ele>2018.208</ele>
        <time>2018-12-30T02:00:15Z</time>
      </trkpt>
      <trkpt lat="36.656570" lon="-118.835750">
        <ele>2018.525</ele>
        <time>2018-12-30T02:00:35Z</time>
      </trkpt>
      <trkpt lat="36.656480" lon="-118.835740">
        <ele>2018.763</ele>
        <time>2018-12-30T02:00:55Z</time>
      </trkpt>
      <trkpt lat="36.656390" lon="-118.835740">
        <ele>2018.978</ele>
        <time>2018-12-30T02:01:15Z</time>
      </trkpt>
      <trkpt lat="36.656280" lon="-118.835740">
        <ele>2019.168</ele>
        <time>2018-12-30T02:01:35Z</time>
      </trkpt>
      <trkpt lat="36.656010" lon="-118.835740">
        <ele>2020.642</ele>
        <time>2018-12-30T02:01:55Z</time>
      </trkpt>
      <trkpt lat="36.655710" lon="-118.835730">
        <ele>2021.982</ele>
        <time>2018-12-30T02:02:15Z</time>
      </trkpt>
      <trkpt lat="36.655480" lon="-118.835720">
        <ele>2023.298</ele>
        <time>2018-12-30T02:02:35Z</time>
      </trkpt>
      <trkpt lat="36.655280" lon="-118.835700">
        <ele>2026.367</ele>
        <time>2018-12-30T02:02:55Z</time>
      </trkpt>
      <trkpt lat="36.655180" lon="-118.835690">
        <ele>2028.317</ele>
        <time>2018-12-30T02:03:15Z</time>
      </trkpt>
      <trkpt lat="36.654970" lon="-118.835660">
        <ele>2030.187</ele>
        <time>2018-12-30T02:03:35Z</time>
      </trkpt>
      <trkpt lat="36.654820" lon="-118.835630">
        <ele>2031.015</ele>
        <time>2018-12-30T02:03:55Z</time>
      </trkpt>
      <trkpt lat="36.654660" lon="-118.835590">
        <ele>2031.608</ele>
        <time>2018-12-30T02:04:15Z</time>
      </trkpt>
      <trkpt lat="36.654270" lon="-118.835470">
        <ele>2031.754</ele>
        <time>2018-12-30T02:04:35Z</time>
      </trkpt>
      <trkpt lat="36.654090" lon="-118.835420">
        <ele>2031.552</ele>
        <time>2018-12-30T02:04:55Z</time>
      </trkpt>
      <trkpt lat="36.654010" lon="-118.835400">
        <ele>2031.567</ele>
        <time>2018-12-30T02:05:15Z</time>
      </trkpt>
      <trkpt lat="36.653970" lon="-118.835390">
        <ele>2031.667</ele>
        <time>2018-12-30T02:05:35Z</time>
      </trkpt>
      <trkpt lat="36.653930" lon="-118.835390">
        <ele>2031.641</ele>
        <time>2018-12-30T02:05:55Z</time>
      </trkpt>
      <trkpt lat="36.653880" lon="-118.835380">
        <ele>2031.771</ele>
        <time>2018-12-30T02:06:15Z</time>
      </trkpt>
      <trkpt lat="36.653830" lon="-118.835390">
        <ele>2031.697</ele>
        <time>2018-12-30T02:06:35Z</time>
      </trkpt>
      <trkpt lat="36.653740" lon="-118.835390">
        <ele>2031.746</ele>
        <time>2018-12-30T02:06:55Z</time>
      </trkpt>
      <trkpt lat="36.653670" lon="-118.835390">
        <ele>2032.356</ele>
        <time>2018-12-30T02:07:15Z</time>
      </trkpt>
      <trkpt lat="36.653610" lon="-118.835400">
        <ele>2032.759</ele>
        <time>2018-12-30T02:07:35Z</time>
      </trkpt>
      <trkpt lat="36.653550" lon="-118.835420">
        <ele>2033.014</ele>
        <time>2018-12-30T02:07:55Z</time>
      </trkpt>
      <trkpt lat="36.653490" lon="-118.835430">
        <ele>2033.308</ele>
        <time>2018-12-30T02:08:15Z</time>
      </trkpt>
      <trkpt lat="36.653410" lon="-118.835460">
        <ele>2033.718</ele>
        <time>2018-12-30T02:08:35Z</time>
      </trkpt>
      <trkpt lat="36.653360" lon="-118.835480">
        <ele>2034.046</ele>
        <time>2018-12-30T02:08:55Z</time>
      </trkpt>
      <trkpt lat="36.653300" lon="-118.835510">
        <ele>2034.211</ele>
        <time>2018-12-30T02:09:15Z</time>
      </trkpt>
      <trkpt lat="36.653220" lon="-118.835550">
        <ele>2034.521</ele>
        <time>2018-12-30T02:09:35Z</time>
      </trkpt>
      <trkpt lat="36.653170" lon="-118.835580">
        <ele>2034.725</ele>
        <time>2018-12-30T02:09:55Z</time>
      </trkpt>
      <trkpt lat="36.653080" lon="-118.835640">
        <ele>2035.195</ele>
        <time>2018-12-30T02:10:15Z</time>
      </trkpt>
      <trkpt lat="36.653010" lon="-118.835700">
        <ele>2034.891</ele>
        <time>2018-12-30T02:10:35Z</time>
      </trkpt>
      <trkpt lat="36.652810" lon="-118.835850">
        <ele>2039.120</ele>
        <time>2018-12-30T02:10:55Z</time>
      </trkpt>
      <trkpt lat="36.652590" lon="-118.836010">
        <ele>2041.599</ele>
        <time>2018-12-30T02:11:15Z</time>
      </trkpt>
      <trkpt lat="36.652420" lon="-118.836120">
        <ele>2042.007</ele>
        <time>2018-12-30T02:11:35Z</time>
      </trkpt>
      <trkpt lat="36.652330" lon="-118.836170">
        <ele>2042.327</ele>
        <time>2018-12-30T02:11:55Z</time>
      </trkpt>
      <trkpt lat="36.652240" lon="-118.836210">
        <ele>2042.508</ele>
        <time>2018-12-30T02:12:15Z</time>
      </trkpt>
      <trkpt lat="36.652150" lon="-118.836240">
        <ele>2042.722</ele>
        <time>2018-12-30T02:12:35Z</time>
      </trkpt>
      <trkpt lat="36.652070" lon="-118.836260">
        <ele>2043.250</ele>
        <time>2018-12-30T02:12:55Z</time>
      </trkpt>
      <trkpt lat="36.652000" lon="-118.836280">
        <ele>2043.575</ele>
        <time>2018-12-30T02:13:15Z</time>
      </trkpt>
      <trkpt lat="36.651910" lon="-118.836290">
        <ele>2044.055</ele>
        <time>2018-12-30T02:13:35Z</time>
      </trkpt>
      <trkpt lat="36.651830" lon="-118.836300">
        <ele>2044.549</ele>
        <time>2018-12-30T02:13:55Z</time>
      </trkpt>
      <trkpt lat="36.651780" lon="-118.836290">
        <ele>2044.779</ele>
        <time>2018-12-30T02:14:15Z</time>
      </trkpt>
      <trkpt lat="36.651710" lon="-118.836290">
        <ele>2044.665</ele>
        <time>2018-12-30T02:14:35Z</time>
      </trkpt>
      <trkpt lat="36.651610" lon="-118.836280">
        <ele>2044.684</ele>
        <time>2018-12-30T02:14:55Z</time>
      </trkpt>
      <trkpt lat="36.651510" lon="-118.836250">
        <ele>2044.689</ele>
        <time>2018-12-30T02:15:15Z</time>
      </trkpt>
      <trkpt lat="36.651410" lon="-118.836220">
        <ele>2044.306</ele>
        <time>2018-12-30T02:15:35Z</time>
      </trkpt>
      <trkpt lat="36.651320" lon="-118.836190">
        <ele>2044.126</ele>
        <time>2018-12-30T02:15:55Z</time>
      </trkpt>
      <trkpt lat="36.651200" lon="-118.836120">
        <ele>2043.908</ele>
        <time>2018-12-30T02:16:15Z</time>
      </trkpt>
      <trkpt lat="36.651090" lon="-118.836060">
        <ele>2043.131</ele>
        <time>2018-12-30T02:16:35Z</time>
      </trkpt>
      <trkpt lat="36.650980" lon="-118.835980">
        <ele>2042.729</ele>
        <time>2018-12-30T02:16:55Z</time>
      </trkpt>
      <trkpt lat="36.650880" lon="-118.835890">
        <ele>2042.934</ele>
        <time>2018-12-30T02:17:15Z</time>
      </trkpt>
      <trkpt lat="36.650800" lon="-118.835810">
        <ele>2043.154</ele>
        <time>2018-12-30T02:17:35Z</time>
      </trkpt>
      <trkpt lat="36.650730" lon="-118.835730">
        <ele>2043.478</ele>
        <time>2018-12-30T02:17:55Z</time>
      </trkpt>
      <trkpt lat="36.650510" lon="-118.835440">
        <ele>2044.898</ele>
        <time>2018-12-30T02:18:15Z</time>
      </trkpt>
      <trkpt lat="36.650360" lon="-118.835260">
        <ele>2044.594</ele>
        <time>2018-12-30T02:18:35Z</time>
      </trkpt>
      <trkpt lat="36.650200" lon="-118.835050">
        <ele>2045.173</ele>
        <time>2018-12-30T02:18:55Z</time>
      </trkpt>
      <trkpt lat="36.650100" lon="-118.834910">
        <ele>2044.698</ele>
        <time>2018-12-30T02:19:15Z</time>
      </trkpt>
      <trkpt lat="36.650060" lon="-118.834860">
        <ele>2044.415</ele>
        <time>2018-12-30T02:19:35Z</time>
      </trkpt>
      <trkpt lat="36.650020" lon="-118.834800">
        <ele>2044.126</ele>
        <time>2018-12-30T02:19:55Z</time>
      </trkpt>
      <trkpt lat="36.649980" lon="-118.834720">
        <ele>2044.008</ele>
        <time>2018-12-30T02:20:15Z</time>
      </trkpt>
      <trkpt lat="36.649950" lon="-118.834650">
        <ele>2043.992</ele>
        <time>2018-12-30T02:20:35Z</time>
      </trkpt>
      <trkpt lat="36.649920" lon="-118.834580">
        <ele>2043.640</ele>
        <time>2018-12-30T02:20:55Z</time>
      </trkpt>
      <trkpt lat="36.649890" lon="-118.834490">
        <ele>2042.935</ele>
        <time>2018-12-30T02:21:15Z</time>
      </trkpt>
      <trkpt lat="36.649890" lon="-118.834450">
        <ele>2043.135</ele>
        <time>2018-12-30T02:21:35Z</time>
      </trkpt>
      <trkpt lat="36.649880" lon="-118.834410">
        <ele>2043.029</ele>
        <time>2018-12-30T02:21:55Z</time>
      </trkpt>
      <trkpt lat="36.649870" lon="-118.834330">
        <ele>2043.089</ele>
        <time>2018-12-30T02:22:15Z</time>
      </trkpt>
      <trkpt lat="36.649860" lon="-118.834240">
        <ele>2042.475</ele>
        <time>2018-12-30T02:22:35Z</time>
      </trkpt>
      <trkpt lat="36.649860" lon="-118.834150">
        <ele>2042.154</ele>
        <time>2018-12-30T02:22:55Z</time>
      </trkpt>
      <trkpt lat="36.649860" lon="-118.834090">
        <ele>2041.859</ele>
        <time>2018-12-30T02:23:15Z</time>
      </trkpt>
      <trkpt lat="36.649880" lon="-118.833980">
        <ele>2041.903</ele>
        <time>2018-12-30T02:23:35Z</time>
      </trkpt>
      <trkpt lat="36.649890" lon="-118.833900">
        <ele>2041.323</ele>
        <time>2018-12-30T02:23:55Z</time>
      </trkpt>
      <trkpt lat="36.649910" lon="-118.833830">
        <ele>2041.208</ele>
        <time>2018-12-30T02:24:15Z</time>
      </trkpt>
      <trkpt lat="36.649950" lon="-118.833710">
        <ele>2040.518</ele>
        <time>2018-12-30T02:24:35Z</time>
      </trkpt>
      <trkpt lat="36.649980" lon="-118.833660">
        <ele>2040.326</ele>
        <time>2018-12-30T02:24:55Z</time>
      </trkpt>
      <trkpt lat="36.650000" lon="-118.833600">
        <ele>2039.521</ele>
        <time>2018-12-30T02:25:15Z</time>
      </trkpt>
      <trkpt lat="36.650040" lon="-118.833530">
        <ele>2039.351</ele>
        <time>2018-12-30T02:25:35Z</time>
      </trkpt>
      <trkpt lat="36.650080" lon="-118.833480">
        <ele>2039.555</ele>
        <time>2018-12-30T02:25:55Z</time>
      </trkpt>
      <trkpt lat="36.650120" lon="-118.833430">
        <ele>2039.995</ele>
        <time>2018-12-30T02:26:15Z</time>
      </trkpt>
      <trkpt lat="36.650180" lon="-118.833360">
        <ele>2040.011</ele>
        <time>2018-12-30T02:26:35Z</time>
      </trkpt>
      <trkpt lat="36.650270" lon="-118.833270">
        <ele>2040.290</ele>
        <time>2018-12-30T02:26:55Z</time>
      </trkpt>
      <trkpt lat="36.650360" lon="-118.833190">
        <ele>2040.618</ele>
        <time>2018-12-30T02:27:15Z</time>
      </trkpt>
      <trkpt lat="36.650590" lon="-118.832950">
        <ele>2040.798</ele>
        <time>2018-12-30T02:27:35Z</time>
      </trkpt>
      <trkpt lat="36.650730" lon="-118.832800">
        <ele>2041.117</ele>
        <time>2018-12-30T02:27:55Z</time>
      </trkpt>
      <trkpt lat="36.650760" lon="-118.832750">
        <ele>2041.008</ele>
        <time>2018-12-30T02:28:15Z</time>
      </trkpt>
      <trkpt lat="36.650810" lon="-118.832660">
        <ele>2040.934</ele>
        <time>2018-12-30T02:28:35Z</time>
      </trkpt>
      <trkpt lat="36.650970" lon="-118.832410">
        <ele>2041.382</ele>
        <time>2018-12-30T02:28:55Z</time>
      </trkpt>
      <trkpt lat="36.651020" lon="-118.832320">
        <ele>2041.597</ele>
        <time>2018-12-30T02:29:15Z</time>
      </trkpt>
      <trkpt lat="36.651080" lon="-118.832200">
        <ele>2041.667</ele>
        <time>2018-12-30T02:29:35Z</time>
      </trkpt>
      <trkpt lat="36.651120" lon="-118.832090">
        <ele>2041.671</ele>
        <time>2018-12-30T02:29:55Z</time>
      </trkpt>
      <trkpt lat="36.651240" lon="-118.831770">
        <ele>2042.251</ele>
        <time>2018-12-30T02:30:15Z</time>
      </trkpt>
      <trkpt lat="36.651280" lon="-118.831610">
        <ele>2042.417</ele>
        <time>2018-12-30T02:30:35Z</time>
      </trkpt>
      <trkpt lat="36.651340" lon="-118.831390">
        <ele>2042.936</ele>
        <time>2018-12-30T02:30:55Z</time>
      </trkpt>
      <trkpt lat="36.651370" lon="-118.831270">
        <ele>2042.953</ele>
        <time>2018-12-30T02:31:15Z</time>
      </trkpt>
      <trkpt lat="36.651400" lon="-118.831170">
        <ele>2042.604</ele>
        <time>2018-12-30T02:31:35Z</time>
      </trkpt>
      <trkpt lat="36.651450" lon="-118.831040">
        <ele>2042.214</ele>
        <time>2018-12-30T02:31:55Z</time>
      </trkpt>
      <trkpt lat="36.651480" lon="-118.830960">
        <ele>2041.808</ele>
        <time>2018-12-30T02:32:15Z</time>
      </trkpt>
      <trkpt lat="36.651550" lon="-118.830820">
        <ele>2040.558</ele>
        <time>2018-12-30T02:32:35Z</time>
      </trkpt>
      <trkpt lat="36.651600" lon="-118.830720">
        <ele>2040.076</ele>
        <time>2018-12-30T02:32:55Z</time>
      </trkpt>
      <trkpt lat="36.651700" lon="-118.830560">
        <ele>2039.051</ele>
        <time>2018-12-30T02:33:15Z</time>
      </trkpt>
      <trkpt lat="36.651900" lon="-118.830280">
        <ele>2036.551</ele>
        <time>2018-12-30T02:33:35Z</time>
      </trkpt>
      <trkpt lat="36.651980" lon="-118.830170">
        <ele>2034.375</ele>
        <time>2018-12-30T02:33:55Z</time>
      </trkpt>
      <trkpt lat="36.652060" lon="-118.830050">
        <ele>2033.575</ele>
        <time>2018-12-30T02:34:15Z</time>
      </trkpt>
      <trkpt lat="36.652120" lon="-118.829950">
        <ele>2033.841</ele>
        <time>2018-12-30T02:34:35Z</time>
      </trkpt>
      <trkpt lat="36.652190" lon="-118.829820">
        <ele>2034.020</ele>
        <time>2018-12-30T02:34:55Z</time>
      </trkpt>
      <trkpt lat="36.652220" lon="-118.829720">
        <ele>2033.472</ele>
        <time>2018-12-30T02:35:15Z</time>
      </trkpt>
      <trkpt lat="36.652260" lon="-118.829610">
        <ele>2032.913</ele>
        <time>2018-12-30T02:35:35Z</time>
      </trkpt>
      <trkpt lat="36.652300" lon="-118.829470">
        <ele>2032.814</ele>
        <time>2018-12-30T02:35:55Z</time>
      </trkpt>
      <trkpt lat="36.652330" lon="-118.829290">
        <ele>2032.308</ele>
        <time>2018-12-30T02:36:15Z</time>
      </trkpt>
      <trkpt lat="36.652340" lon="-118.829140">
        <ele>2031.890</ele>
        <time>2018-12-30T02:36:35Z</time>
      </trkpt>
      <trkpt lat="36.652340" lon="-118.829050">
        <ele>2031.378</ele>
        <time>2018-12-30T02:36:55Z</time>
      </trkpt>
      <trkpt lat="36.652340" lon="-118.828930">
        <ele>2030.873</ele>
        <time>2018-12-30T02:37:15Z</time>
      </trkpt>
      <trkpt lat="36.652330" lon="-118.828840">
        <ele>2030.363</ele>
        <time>2018-12-30T02:37:35Z</time>
      </trkpt>
      <trkpt lat="36.652320" lon="-118.828760">
        <ele>2029.847</ele>
        <time>2018-12-30T02:37:55Z</time>
      </trkpt>
      <trkpt lat="36.652280" lon="-118.828570">
        <ele>2029.947</ele>
        <time>2018-12-30T02:38:15Z</time>
      </trkpt>
      <trkpt lat="36.652230" lon="-118.828430">
        <ele>2029.953</ele>
        <time>2018-12-30T02:38:35Z</time>
      </trkpt>
      <trkpt lat="36.652210" lon="-118.828370">
        <ele>2030.162</ele>
        <time>2018-12-30T02:38:55Z</time>
      </trkpt>
      <trkpt lat="36.652180" lon="-118.828310">
        <ele>2030.185</ele>
        <time>2018-12-30T02:39:15Z</time>
      </trkpt>
      <trkpt lat="36.652110" lon="-118.828180">
        <ele>2030.389</ele>
        <time>2018-12-30T02:39:35Z</time>
      </trkpt>
      <trkpt lat="36.652060" lon="-118.828120">
        <ele>2030.417</ele>
        <time>2018-12-30T02:39:55Z</time>
      </trkpt>
      <trkpt lat="36.652010" lon="-118.828060">
        <ele>2030.708</ele>
        <time>2018-12-30T02:40:15Z</time>
      </trkpt>
      <trkpt lat="36.651920" lon="-118.827980">
        <ele>2031.031</ele>
        <time>2018-12-30T02:40:35Z</time>
      </trkpt>
      <trkpt lat="36.651800" lon="-118.827910">
        <ele>2031.279</ele>
        <time>2018-12-30T02:40:55Z</time>
      </trkpt>
      <trkpt lat="36.651690" lon="-118.827860">
        <ele>2031.434</ele>
        <time>2018-12-30T02:41:15Z</time>
      </trkpt>
      <trkpt lat="36.651610" lon="-118.827830">
        <ele>2031.414</ele>
        <time>2018-12-30T02:41:35Z</time>
      </trkpt>
      <trkpt lat="36.651490" lon="-118.827810">
        <ele>2030.888</ele>
        <time>2018-12-30T02:41:55Z</time>
      </trkpt>
      <trkpt lat="36.651380" lon="-118.827780">
        <ele>2030.288</ele>
        <time>2018-12-30T02:42:15Z</time>
      </trkpt>
      <trkpt lat="36.651330" lon="-118.827760">
        <ele>2030.094</ele>
        <time>2018-12-30T02:42:35Z</time>
      </trkpt>
      <trkpt lat="36.651290" lon="-118.827740">
        <ele>2029.923</ele>
        <time>2018-12-30T02:42:55Z</time>
      </trkpt>
      <trkpt lat="36.651230" lon="-118.827710">
        <ele>2029.611</ele>
        <time>2018-12-30T02:43:15Z</time>
      </trkpt>
      <trkpt lat="36.651180" lon="-118.827680">
        <ele>2029.421</ele>
        <time>2018-12-30T02:43:35Z</time>
      </trkpt>
      <trkpt lat="36.651100" lon="-118.827630">
        <ele>2029.103</ele>
        <time>2018-12-30T02:43:55Z</time>
      </trkpt>
      <trkpt lat="36.651010" lon="-118.827550">
        <ele>2029.108</ele>
        <time>2018-12-30T02:44:15Z</time>
      </trkpt>
      <trkpt lat="36.650960" lon="-118.827500">
        <ele>2029.154</ele>
        <time>2018-12-30T02:44:35Z</time>
      </trkpt>
      <trkpt lat="36.650900" lon="-118.827430">
        <ele>2029.062</ele>
        <time>2018-12-30T02:44:55Z</time>
      </trkpt>
      <trkpt lat="36.650810" lon="-118.827310">
        <ele>2029.297</ele>
        <time>2018-12-30T02:45:15Z</time>
      </trkpt>
      <trkpt lat="36.650760" lon="-118.827240">
        <ele>2029.347</ele>
        <time>2018-12-30T02:45:35Z</time>
      </trkpt>
      <trkpt lat="36.650710" lon="-118.827150">
        <ele>2029.581</ele>
        <time>2018-12-30T02:45:55Z</time>
      </trkpt>
      <trkpt lat="36.650600" lon="-118.826930">
        <ele>2030.411</ele>
        <time>2018-12-30T02:46:15Z</time>
      </trkpt>
      <trkpt lat="36.650560" lon="-118.826860">
        <ele>2030.947</ele>
        <time>2018-12-30T02:46:35Z</time>
      </trkpt>
      <trkpt lat="36.650510" lon="-118.826780">
        <ele>2031.686</ele>
        <time>2018-12-30T02:46:55Z</time>
      </trkpt>
      <trkpt lat="36.650450" lon="-118.826720">
        <ele>2032.038</ele>
        <time>2018-12-30T02:47:15Z</time>
      </trkpt>
      <trkpt lat="36.650420" lon="-118.826690">
        <ele>2032.270</ele>
        <time>2018-12-30T02:47:35Z</time>
      </trkpt>
      <trkpt lat="36.650390" lon="-118.826660">
        <ele>2032.617</ele>
        <time>2018-12-30T02:47:55Z</time>
      </trkpt>
      <trkpt lat="36.650350" lon="-118.826630">
        <ele>2032.908</ele>
        <time>2018-12-30T02:48:15Z</time>
      </trkpt>
      <trkpt lat="36.650290" lon="-118.826590">
        <ele>2033.326</ele>
        <time>2018-12-30T02:48:35Z</time>
      </trkpt>
      <trkpt lat="36.650240" lon="-118.826570">
        <ele>2033.324</ele>
        <time>2018-12-30T02:48:55Z</time>
      </trkpt>
      <trkpt lat="36.650190" lon="-118.826550">
        <ele>2033.489</ele>
        <time>2018-12-30T02:49:15Z</time>
      </trkpt>
      <trkpt lat="36.650120" lon="-118.826530">
        <ele>2033.819</ele>
        <time>2018-12-30T02:49:35Z</time>
      </trkpt>
      <trkpt lat="36.650060" lon="-118.826530">
        <ele>2034.533</ele>
        <time>2018-12-30T02:49:55Z</time>
      </trkpt>
      <trkpt lat="36.650000" lon="-118.826530">
        <ele>2035.243</ele>
        <time>2018-12-30T02:50:15Z</time>
      </trkpt>
      <trkpt lat="36.649950" lon="-118.826530">
        <ele>2035.879</ele>
        <time>2018-12-30T02:50:35Z</time>
      </trkpt>
      <trkpt lat="36.649900" lon="-118.826530">
        <ele>2036.518</ele>
        <time>2018-12-30T02:50:55Z</time>
      </trkpt>
      <trkpt lat="36.649840" lon="-118.826550">
        <ele>2037.163</ele>
        <time>2018-12-30T02:51:15Z</time>
      </trkpt>
      <trkpt lat="36.649760" lon="-118.826580">
        <ele>2038.544</ele>
        <time>2018-12-30T02:51:35Z</time>
      </trkpt>
      <trkpt lat="36.649700" lon="-118.826610">
        <ele>2039.218</ele>
        <time>2018-12-30T02:51:55Z</time>
      </trkpt>
      <trkpt lat="36.649600" lon="-118.826690">
        <ele>2039.108</ele>
        <time>2018-12-30T02:52:15Z</time>
      </trkpt>
      <trkpt lat="36.649550" lon="-118.826740">
        <ele>2038.869</ele>
        <time>2018-12-30T02:52:35Z</time>
      </trkpt>
      <trkpt lat="36.649490" lon="-118.826790">
        <ele>2039.177</ele>
        <time>2018-12-30T02:52:55Z</time>
      </trkpt>
      <trkpt lat="36.649420" lon="-118.826840">
        <ele>2040.552</ele>
        <time>2018-12-30T02:53:15Z</time>
      </trkpt>
      <trkpt lat="36.649370" lon="-118.826870">
        <ele>2041.722</ele>
        <time>2018-12-30T02:53:35Z</time>
      </trkpt>
      <trkpt lat="36.649280" lon="-118.826920">
        <ele>2043.026</ele>
        <time>2018-12-30T02:53:55Z</time>
      </trkpt>
      <trkpt lat="36.649210" lon="-118.826950">
        <ele>2043.036</ele>
        <time>2018-12-30T02:54:15Z</time>
      </trkpt>
      <trkpt lat="36.649150" lon="-118.826970">
        <ele>2043.112</ele>
        <time>2018-12-30T02:54:35Z</time>
      </trkpt>
      <trkpt lat="36.649070" lon="-118.826990">
        <ele>2043.381</ele>
        <time>2018-12-30T02:54:55Z</time>
      </trkpt>
      <trkpt lat="36.649000" lon="-118.827000">
        <ele>2043.491</ele>
        <time>2018-12-30T02:55:15Z</time>
      </trkpt>
      <trkpt lat="36.648910" lon="-118.827010">
        <ele>2043.281</ele>
        <time>2018-12-30T02:55:35Z</time>
      </trkpt>
      <trkpt lat="36.648860" lon="-118.827000">
        <ele>2043.419</ele>
        <time>2018-12-30T02:55:55Z</time>
      </trkpt>
      <trkpt lat="36.648810" lon="-118.827000">
        <ele>2043.408</ele>
        <time>2018-12-30T02:56:15Z</time>
      </trkpt>
      <trkpt lat="36.648750" lon="-118.826990">
        <ele>2043.752</ele>
        <time>2018-12-30T02:56:35Z</time>
      </trkpt>
      <trkpt lat="36.648690" lon="-118.826980">
        <ele>2043.480</ele>
        <time>2018-12-30T02:56:55Z</time>
      </trkpt>
      <trkpt lat="36.648640" lon="-118.826960">
        <ele>2043.425</ele>
        <time>2018-12-30T02:57:15Z</time>
      </trkpt>
      <trkpt lat="36.648590" lon="-118.826930">
        <ele>2043.725</ele>
        <time>2018-12-30T02:57:35Z</time>
      </trkpt>
      <trkpt lat="36.648550" lon="-118.826910">
        <ele>2043.869</ele>
        <time>2018-12-30T02:57:55Z</time>
      </trkpt>
      <trkpt lat="36.648510" lon="-118.826890">
        <ele>2044.039</ele>
        <time>2018-12-30T02:58:15Z</time>
      </trkpt>
      <trkpt lat="36.648450" lon="-118.826850">
        <ele>2044.235</ele>
        <time>2018-12-30T02:58:35Z</time>
      </trkpt>
      <trkpt lat="36.648410" lon="-118.826820">
        <ele>2044.324</ele>
        <time>2018-12-30T02:58:55Z</time>
      </trkpt>
      <trkpt lat="36.648390" lon="-118.826800">
        <ele>2044.572</ele>
        <time>2018-12-30T02:59:15Z</time>
      </trkpt>
      <trkpt lat="36.648350" lon="-118.826770">
        <ele>2044.813</ele>
        <time>2018-12-30T02:59:35Z</time>
      </trkpt>
      <trkpt lat="36.648240" lon="-118.826650">
        <ele>2046.014</ele>
        <time>2018-12-30T02:59:55Z</time>
      </trkpt>
      <trkpt lat="36.648220" lon="-118.826630">
        <ele>2046.008</ele>
        <time>2018-12-30T03:00:15Z</time>
      </trkpt>
      <trkpt lat="36.648120" lon="-118.826520">
        <ele>2046.670</ele>
        <time>2018-12-30T03:00:35Z</time>
      </trkpt>
      <trkpt lat="36.647920" lon="-118.826320">
        <ele>2046.528</ele>
        <time>2018-12-30T03:00:55Z</time>
      </trkpt>
      <trkpt lat="36.647380" lon="-118.825730">
        <ele>2048.433</ele>
        <time>2018-12-30T03:01:15Z</time>
      </trkpt>
      <trkpt lat="36.647050" lon="-118.825350">
        <ele>2053.733</ele>
        <time>2018-12-30T03:01:35Z</time>
      </trkpt>
      <trkpt lat="36.646750" lon="-118.825040">
        <ele>2054.077</ele>
        <time>2018-12-30T03:01:55Z</time>
      </trkpt>
      <trkpt lat="36.646720" lon="-118.825000">
        <ele>2054.157</ele>
        <time>2018-12-30T03:02:15Z</time>
      </trkpt>
      <trkpt lat="36.646670" lon="-118.824940">
        <ele>2054.323</ele>
        <time>2018-12-30T03:02:35Z</time>
      </trkpt>
      <trkpt lat="36.646580" lon="-118.824850">
        <ele>2054.612</ele>
        <time>2018-12-30T03:02:55Z</time>
      </trkpt>
      <trkpt lat="36.646490" lon="-118.824760">
        <ele>2055.444</ele>
        <time>2018-12-30T03:03:15Z</time>
      </trkpt>
      <trkpt lat="36.646410" lon="-118.824700">
        <ele>2055.905</ele>
        <time>2018-12-30T03:03:35Z</time>
      </trkpt>
      <trkpt lat="36.646350" lon="-118.824650">
        <ele>2056.415</ele>
        <time>2018-12-30T03:03:55Z</time>
      </trkpt>
      <trkpt lat="36.646320" lon="-118.824630">
        <ele>2056.608</ele>
        <time>2018-12-30T03:04:15Z</time>
      </trkpt>
      <trkpt lat="36.646280" lon="-118.824610">
        <ele>2056.877</ele>
        <time>2018-12-30T03:04:35Z</time>
      </trkpt>
      <trkpt lat="36.646250" lon="-118.824600">
        <ele>2056.825</ele>
        <time>2018-12-30T03:04:55Z</time>
      </trkpt>
      <trkpt lat="36.646230" lon="-118.824590">
        <ele>2056.980</ele>
        <time>2018-12-30T03:05:15Z</time>
      </trkpt>
      <trkpt lat="36.646170" lon="-118.824550">
        <ele>2057.740</ele>
        <time>2018-12-30T03:05:35Z</time>
      </trkpt>
      <trkpt lat="36.646090" lon="-118.824520">
        <ele>2058.054</ele>
        <time>2018-12-30T03:05:55Z</time>
      </trkpt>
      <trkpt lat="36.646010" lon="-118.824490">
        <ele>2058.494</ele>
        <time>2018-12-30T03:06:15Z</time>
      </trkpt>
      <trkpt lat="36.645900" lon="-118.824460">
        <ele>2058.730</ele>
        <time>2018-12-30T03:06:35Z</time>
      </trkpt>
      <trkpt lat="36.645780" lon="-118.824430">
        <ele>2059.029</ele>
        <time>2018-12-30T03:06:55Z</time>
      </trkpt>
      <trkpt lat="36.645570" lon="-118.824370">
        <ele>2059.869</ele>
        <time>2018-12-30T03:07:15Z</time>
      </trkpt>
      <trkpt lat="36.645450" lon="-118.824320">
        <ele>2060.704</ele>
        <time>2018-12-30T03:07:35Z</time>
      </trkpt>
      <trkpt lat="36.645370" lon="-118.824290">
        <ele>2062.124</ele>
        <time>2018-12-30T03:07:55Z</time>
      </trkpt>
      <trkpt lat="36.645160" lon="-118.824190">
        <ele>2067.208</ele>
        <time>2018-12-30T03:08:15Z</time>
      </trkpt>
      <trkpt lat="36.645060" lon="-118.824140">
        <ele>2067.719</ele>
        <time>2018-12-30T03:08:35Z</time>
      </trkpt>
      <trkpt lat="36.644940" lon="-118.824070">
        <ele>2068.197</ele>
        <time>2018-12-30T03:08:55Z</time>
      </trkpt>
      <trkpt lat="36.644870" lon="-118.824030">
        <ele>2068.312</ele>
        <time>2018-12-30T03:09:15Z</time>
      </trkpt>
      <trkpt lat="36.644780" lon="-118.823980">
        <ele>2068.632</ele>
        <time>2018-12-30T03:09:35Z</time>
      </trkpt>
      <trkpt lat="36.644690" lon="-118.823920">
        <ele>2069.076</ele>
        <time>2018-12-30T03:09:55Z</time>
      </trkpt>
      <trkpt lat="36.644600" lon="-118.823850">
        <ele>2069.516</ele>
        <time>2018-12-30T03:10:15Z</time>
      </trkpt>
      <trkpt lat="36.644390" lon="-118.823690">
        <ele>2069.682</ele>
        <time>2018-12-30T03:10:35Z</time>
      </trkpt>
      <trkpt lat="36.644120" lon="-118.823430">
        <ele>2069.661</ele>
        <time>2018-12-30T03:10:55Z</time>
      </trkpt>
      <trkpt lat="36.644020" lon="-118.823320">
        <ele>2069.327</ele>
        <time>2018-12-30T03:11:15Z</time>
      </trkpt>
      <trkpt lat="36.643950" lon="-118.823240">
        <ele>2069.168</ele>
        <time>2018-12-30T03:11:35Z</time>
      </trkpt>
      <trkpt lat="36.643860" lon="-118.823130">
        <ele>2069.014</ele>
        <time>2018-12-30T03:11:55Z</time>
      </trkpt>
      <trkpt lat="36.643780" lon="-118.823030">
        <ele>2068.608</ele>
        <time>2018-12-30T03:12:15Z</time>
      </trkpt>
      <trkpt lat="36.643660" lon="-118.822870">
        <ele>2068.225</ele>
        <time>2018-12-30T03:12:35Z</time>
      </trkpt>
      <trkpt lat="36.643570" lon="-118.822730">
        <ele>2068.143</ele>
        <time>2018-12-30T03:12:55Z</time>
      </trkpt>
      <trkpt lat="36.643480" lon="-118.822560">
        <ele>2068.168</ele>
        <time>2018-12-30T03:13:15Z</time>
      </trkpt>
      <trkpt lat="36.643390" lon="-118.822400">
        <ele>2068.438</ele>
        <time>2018-12-30T03:13:35Z</time>
      </trkpt>
      <trkpt lat="36.643270" lon="-118.822150">
        <ele>2069.062</ele>
        <time>2018-12-30T03:13:55Z</time>
      </trkpt>
      <trkpt lat="36.643210" lon="-118.822010">
        <ele>2069.392</ele>
        <time>2018-12-30T03:14:15Z</time>
      </trkpt>
      <trkpt lat="36.643150" lon="-118.821850">
        <ele>2070.178</ele>
        <time>2018-12-30T03:14:35Z</time>
      </trkpt>
      <trkpt lat="36.643060" lon="-118.821600">
        <ele>2070.617</ele>
        <time>2018-12-30T03:14:55Z</time>
      </trkpt>
      <trkpt lat="36.643000" lon="-118.821400">
        <ele>2071.025</ele>
        <time>2018-12-30T03:15:15Z</time>
      </trkpt>
      <trkpt lat="36.642960" lon="-118.821220">
        <ele>2071.226</ele>
        <time>2018-12-30T03:15:35Z</time>
      </trkpt>
      <trkpt lat="36.642920" lon="-118.821040">
        <ele>2071.008</ele>
        <time>2018-12-30T03:15:55Z</time>
      </trkpt>
      <trkpt lat="36.642860" lon="-118.820710">
        <ele>2071.208</ele>
        <time>2018-12-30T03:16:15Z</time>
      </trkpt>
      <trkpt lat="36.642830" lon="-118.820500">
        <ele>2071.955</ele>
        <time>2018-12-30T03:16:35Z</time>
      </trkpt>
      <trkpt lat="36.642820" lon="-118.820340">
        <ele>2072.693</ele>
        <time>2018-12-30T03:16:55Z</time>
      </trkpt>
      <trkpt lat="36.642810" lon="-118.820200">
        <ele>2073.038</ele>
        <time>2018-12-30T03:17:15Z</time>
      </trkpt>
      <trkpt lat="36.642800" lon="-118.820010">
        <ele>2073.318</ele>
        <time>2018-12-30T03:17:35Z</time>
      </trkpt>
      <trkpt lat="36.642800" lon="-118.819890">
        <ele>2073.472</ele>
        <time>2018-12-30T03:17:55Z</time>
      </trkpt>
      <trkpt lat="36.642800" lon="-118.819730">
        <ele>2073.512</ele>
        <time>2018-12-30T03:18:15Z</time>
      </trkpt>
      <trkpt lat="36.642820" lon="-118.819500">
        <ele>2073.038</ele>
        <time>2018-12-30T03:18:35Z</time>
      </trkpt>
      <trkpt lat="36.642830" lon="-118.819310">
        <ele>2072.027</ele>
        <time>2018-12-30T03:18:55Z</time>
      </trkpt>
      <trkpt lat="36.642840" lon="-118.819180">
        <ele>2071.026</ele>
        <time>2018-12-30T03:19:15Z</time>
      </trkpt>
      <trkpt lat="36.642870" lon="-118.819040">
        <ele>2070.347</ele>
        <time>2018-12-30T03:19:35Z</time>
      </trkpt>
      <trkpt lat="36.642910" lon="-118.818850">
        <ele>2068.911</ele>
        <time>2018-12-30T03:19:55Z</time>
      </trkpt>
      <trkpt lat="36.642960" lon="-118.818620">
        <ele>2067.708</ele>
        <time>2018-12-30T03:20:15Z</time>
      </trkpt>
      <trkpt lat="36.642990" lon="-118.818490">
        <ele>2067.245</ele>
        <time>2018-12-30T03:20:35Z</time>
      </trkpt>
      <trkpt lat="36.643020" lon="-118.818370">
        <ele>2066.843</ele>
        <time>2018-12-30T03:20:55Z</time>
      </trkpt>
      <trkpt lat="36.643100" lon="-118.818110">
        <ele>2066.178</ele>
        <time>2018-12-30T03:21:15Z</time>
      </trkpt>
      <trkpt lat="36.643190" lon="-118.817870">
        <ele>2065.518</ele>
        <time>2018-12-30T03:21:35Z</time>
      </trkpt>
      <trkpt lat="36.643210" lon="-118.817800">
        <ele>2065.172</ele>
        <time>2018-12-30T03:21:55Z</time>
      </trkpt>
      <trkpt lat="36.643260" lon="-118.817690">
        <ele>2065.022</ele>
        <time>2018-12-30T03:22:15Z</time>
      </trkpt>
      <trkpt lat="36.643330" lon="-118.817540">
        <ele>2064.878</ele>
        <time>2018-12-30T03:22:35Z</time>
      </trkpt>
      <trkpt lat="36.643360" lon="-118.817480">
        <ele>2064.737</ele>
        <time>2018-12-30T03:22:55Z</time>
      </trkpt>
      <trkpt lat="36.643430" lon="-118.817340">
        <ele>2064.644</ele>
        <time>2018-12-30T03:23:15Z</time>
      </trkpt>
      <trkpt lat="36.643560" lon="-118.817120">
        <ele>2064.405</ele>
        <time>2018-12-30T03:23:35Z</time>
      </trkpt>
      <trkpt lat="36.643650" lon="-118.816980">
        <ele>2064.215</ele>
        <time>2018-12-30T03:23:55Z</time>
      </trkpt>
      <trkpt lat="36.643780" lon="-118.816810">
        <ele>2063.908</ele>
        <time>2018-12-30T03:24:15Z</time>
      </trkpt>
      <trkpt lat="36.643910" lon="-118.816640">
        <ele>2063.617</ele>
        <time>2018-12-30T03:24:35Z</time>
      </trkpt>
      <trkpt lat="36.643980" lon="-118.816550">
        <ele>2063.415</ele>
        <time>2018-12-30T03:24:55Z</time>
      </trkpt>
      <trkpt lat="36.644060" lon="-118.816470">
        <ele>2063.540</ele>
        <time>2018-12-30T03:25:15Z</time>
      </trkpt>
      <trkpt lat="36.644230" lon="-118.816290">
        <ele>2063.410</ele>
        <time>2018-12-30T03:25:35Z</time>
      </trkpt>
      <trkpt lat="36.644350" lon="-118.816180">
        <ele>2063.234</ele>
        <time>2018-12-30T03:25:55Z</time>
      </trkpt>
      <trkpt lat="36.644460" lon="-118.816090">
        <ele>2062.884</ele>
        <time>2018-12-30T03:26:15Z</time>
      </trkpt>
      <trkpt lat="36.644680" lon="-118.815920">
        <ele>2060.930</ele>
        <time>2018-12-30T03:26:35Z</time>
      </trkpt>
      <trkpt lat="36.644840" lon="-118.815820">
        <ele>2058.959</ele>
        <time>2018-12-30T03:26:55Z</time>
      </trkpt>
      <trkpt lat="36.644950" lon="-118.815750">
        <ele>2058.019</ele>
        <time>2018-12-30T03:27:15Z</time>
      </trkpt>
      <trkpt lat="36.645130" lon="-118.815650">
        <ele>2056.709</ele>
        <time>2018-12-30T03:27:35Z</time>
      </trkpt>
      <trkpt lat="36.645300" lon="-118.815580">
        <ele>2056.719</ele>
        <time>2018-12-30T03:27:55Z</time>
      </trkpt>
      <trkpt lat="36.645520" lon="-118.815490">
        <ele>2056.508</ele>
        <time>2018-12-30T03:28:15Z</time>
      </trkpt>
      <trkpt lat="36.645750" lon="-118.815420">
        <ele>2056.544</ele>
        <time>2018-12-30T03:28:35Z</time>
      </trkpt>
      <trkpt lat="36.645970" lon="-118.815350">
        <ele>2055.972</ele>
        <time>2018-12-30T03:28:55Z</time>
      </trkpt>
      <trkpt lat="36.646140" lon="-118.815290">
        <ele>2054.917</ele>
        <time>2018-12-30T03:29:15Z</time>
      </trkpt>
      <trkpt lat="36.646250" lon="-118.815250">
        <ele>2054.167</ele>
        <time>2018-12-30T03:29:35Z</time>
      </trkpt>
      <trkpt lat="36.646330" lon="-118.815210">
        <ele>2053.931</ele>
        <time>2018-12-30T03:29:55Z</time>
      </trkpt>
      <trkpt lat="36.646410" lon="-118.815170">
        <ele>2053.781</ele>
        <time>2018-12-30T03:30:15Z</time>
      </trkpt>
      <trkpt lat="36.646490" lon="-118.815110">
        <ele>2053.267</ele>
        <time>2018-12-30T03:30:35Z</time>
      </trkpt>
      <trkpt lat="36.646550" lon="-118.815050">
        <ele>2052.576</ele>
        <time>2018-12-30T03:30:55Z</time>
      </trkpt>
      <trkpt lat="36.646610" lon="-118.814990">
        <ele>2052.077</ele>
        <time>2018-12-30T03:31:15Z</time>
      </trkpt>
      <trkpt lat="36.646660" lon="-118.814920">
        <ele>2051.361</ele>
        <time>2018-12-30T03:31:35Z</time>
      </trkpt>
      <trkpt lat="36.646700" lon="-118.814850">
        <ele>2050.627</ele>
        <time>2018-12-30T03:31:55Z</time>
      </trkpt>
      <trkpt lat="36.646760" lon="-118.814730">
        <ele>2050.708</ele>
        <time>2018-12-30T03:32:15Z</time>
      </trkpt>
      <trkpt lat="36.646800" lon="-118.814600">
        <ele>2050.920</ele>
        <time>2018-12-30T03:32:35Z</time>
      </trkpt>
      <trkpt lat="36.646830" lon="-118.814520">
        <ele>2050.698</ele>
        <time>2018-12-30T03:32:55Z</time>
      </trkpt>
      <trkpt lat="36.646850" lon="-118.814440">
        <ele>2050.293</ele>
        <time>2018-12-30T03:33:15Z</time>
      </trkpt>
      <trkpt lat="36.646860" lon="-118.814360">
        <ele>2049.883</ele>
        <time>2018-12-30T03:33:35Z</time>
      </trkpt>
      <trkpt lat="36.646870" lon="-118.814300">
        <ele>2049.727</ele>
        <time>2018-12-30T03:33:55Z</time>
      </trkpt>
      <trkpt lat="36.646870" lon="-118.814220">
        <ele>2050.017</ele>
        <time>2018-12-30T03:34:15Z</time>
      </trkpt>
      <trkpt lat="36.646870" lon="-118.814120">
        <ele>2050.553</ele>
        <time>2018-12-30T03:34:35Z</time>
      </trkpt>
      <trkpt lat="36.646850" lon="-118.814000">
        <ele>2051.452</ele>
        <time>2018-12-30T03:34:55Z</time>
      </trkpt>
      <trkpt lat="36.646840" lon="-118.813900">
        <ele>2052.392</ele>
        <time>2018-12-30T03:35:15Z</time>
      </trkpt>
      <trkpt lat="36.646810" lon="-118.813800">
        <ele>2053.373</ele>
        <time>2018-12-30T03:35:35Z</time>
      </trkpt>
      <trkpt lat="36.646770" lon="-118.813690">
        <ele>2055.320</ele>
        <time>2018-12-30T03:35:55Z</time>
      </trkpt>
      <trkpt lat="36.646740" lon="-118.813600">
        <ele>2057.108</ele>
        <time>2018-12-30T03:36:15Z</time>
      </trkpt>
      <trkpt lat="36.646700" lon="-118.813540">
        <ele>2058.452</ele>
        <time>2018-12-30T03:36:35Z</time>
      </trkpt>
      <trkpt lat="36.646670" lon="-118.813490">
        <ele>2059.410</ele>
        <time>2018-12-30T03:36:55Z</time>
      </trkpt>
      <trkpt lat="36.646580" lon="-118.813380">
        <ele>2060.795</ele>
        <time>2018-12-30T03:37:15Z</time>
      </trkpt>
      <trkpt lat="36.646490" lon="-118.813280">
        <ele>2061.375</ele>
        <time>2018-12-30T03:37:35Z</time>
      </trkpt>
      <trkpt lat="36.646360" lon="-118.813160">
        <ele>2061.769</ele>
        <time>2018-12-30T03:37:55Z</time>
      </trkpt>
      <trkpt lat="36.646130" lon="-118.812940">
        <ele>2063.219</ele>
        <time>2018-12-30T03:38:15Z</time>
      </trkpt>
      <trkpt lat="36.645700" lon="-118.812530">
        <ele>2066.955</ele>
        <time>2018-12-30T03:38:35Z</time>
      </trkpt>
      <trkpt lat="36.645510" lon="-118.812360">
        <ele>2067.034</ele>
        <time>2018-12-30T03:38:55Z</time>
      </trkpt>
      <trkpt lat="36.645080" lon="-118.811960">
        <ele>2068.282</ele>
        <time>2018-12-30T03:39:15Z</time>
      </trkpt>
      <trkpt lat="36.644780" lon="-118.811680">
        <ele>2069.443</ele>
        <time>2018-12-30T03:39:35Z</time>
      </trkpt>
      <trkpt lat="36.644540" lon="-118.811450">
        <ele>2070.617</ele>
        <time>2018-12-30T03:39:55Z</time>
      </trkpt>
      <trkpt lat="36.644300" lon="-118.811230">
        <ele>2071.208</ele>
        <time>2018-12-30T03:40:15Z</time>
      </trkpt>
      <trkpt lat="36.644200" lon="-118.811120">
        <ele>2072.531</ele>
        <time>2018-12-30T03:40:35Z</time>
      </trkpt>
      <trkpt lat="36.644170" lon="-118.811090">
        <ele>2072.749</ele>
        <time>2018-12-30T03:40:55Z</time>
      </trkpt>
      <trkpt lat="36.644150" lon="-118.811060">
        <ele>2072.964</ele>
        <time>2018-12-30T03:41:15Z</time>
      </trkpt>
      <trkpt lat="36.644120" lon="-118.811030">
        <ele>2073.034</ele>
        <time>2018-12-30T03:41:35Z</time>
      </trkpt>
      <trkpt lat="36.644100" lon="-118.810990">
        <ele>2073.368</ele>
        <time>2018-12-30T03:41:55Z</time>
      </trkpt>
      <trkpt lat="36.644040" lon="-118.810890">
        <ele>2073.078</ele>
        <time>2018-12-30T03:42:15Z</time>
      </trkpt>
      <trkpt lat="36.643990" lon="-118.810800">
        <ele>2073.234</ele>
        <time>2018-12-30T03:42:35Z</time>
      </trkpt>
      <trkpt lat="36.643950" lon="-118.810710">
        <ele>2073.653</ele>
        <time>2018-12-30T03:42:55Z</time>
      </trkpt>
      <trkpt lat="36.643920" lon="-118.810650">
        <ele>2073.976</ele>
        <time>2018-12-30T03:43:15Z</time>
      </trkpt>
      <trkpt lat="36.643880" lon="-118.810550">
        <ele>2074.290</ele>
        <time>2018-12-30T03:43:35Z</time>
      </trkpt>
      <trkpt lat="36.643850" lon="-118.810450">
        <ele>2074.219</ele>
        <time>2018-12-30T03:43:55Z</time>
      </trkpt>
      <trkpt lat="36.643830" lon="-118.810360">
        <ele>2073.608</ele>
        <time>2018-12-30T03:44:15Z</time>
      </trkpt>
      <trkpt lat="36.643820" lon="-118.810220">
        <ele>2072.420</ele>
        <time>2018-12-30T03:44:35Z</time>
      </trkpt>
      <trkpt lat="36.643810" lon="-118.810160">
        <ele>2071.768</ele>
        <time>2018-12-30T03:44:55Z</time>
      </trkpt>
      <trkpt lat="36.643800" lon="-118.810020">
        <ele>2070.273</ele>
        <time>2018-12-30T03:45:15Z</time>
      </trkpt>
      <trkpt lat="36.643800" lon="-118.809920">
        <ele>2069.413</ele>
        <time>2018-12-30T03:45:35Z</time>
      </trkpt>
      <trkpt lat="36.643810" lon="-118.809820">
        <ele>2068.947</ele>
        <time>2018-12-30T03:45:55Z</time>
      </trkpt>
      <trkpt lat="36.643820" lon="-118.809710">
        <ele>2068.287</ele>
        <time>2018-12-30T03:46:15Z</time>
      </trkpt>
      <trkpt lat="36.643850" lon="-118.809590">
        <ele>2067.943</ele>
        <time>2018-12-30T03:46:35Z</time>
      </trkpt>
      <trkpt lat="36.643880" lon="-118.809470">
        <ele>2067.582</ele>
        <time>2018-12-30T03:46:55Z</time>
      </trkpt>
      <trkpt lat="36.643910" lon="-118.809390">
        <ele>2067.371</ele>
        <time>2018-12-30T03:47:15Z</time>
      </trkpt>
      <trkpt lat="36.643950" lon="-118.809290">
        <ele>2067.141</ele>
        <time>2018-12-30T03:47:35Z</time>
      </trkpt>
      <trkpt lat="36.644000" lon="-118.809180">
        <ele>2066.815</ele>
        <time>2018-12-30T03:47:55Z</time>
      </trkpt>
      <trkpt lat="36.644060" lon="-118.809070">
        <ele>2066.808</ele>
        <time>2018-12-30T03:48:15Z</time>
      </trkpt>
      <trkpt lat="36.644120" lon="-118.808980">
        <ele>2066.780</ele>
        <time>2018-12-30T03:48:35Z</time>
      </trkpt>
      <trkpt lat="36.644190" lon="-118.808890">
        <ele>2066.568</ele>
        <time>2018-12-30T03:48:55Z</time>
      </trkpt>
      <trkpt lat="36.644290" lon="-118.808790">
        <ele>2066.393</ele>
        <time>2018-12-30T03:49:15Z</time>
      </trkpt>
      <trkpt lat="36.644410" lon="-118.808670">
        <ele>2065.513</ele>
        <time>2018-12-30T03:49:35Z</time>
      </trkpt>
      <trkpt lat="36.644580" lon="-118.808520">
        <ele>2064.657</ele>
        <time>2018-12-30T03:49:55Z</time>
      </trkpt>
      <trkpt lat="36.644700" lon="-118.808380">
        <ele>2063.977</ele>
        <time>2018-12-30T03:50:15Z</time>
      </trkpt>
      <trkpt lat="36.644770" lon="-118.808300">
        <ele>2063.873</ele>
        <time>2018-12-30T03:50:35Z</time>
      </trkpt>
      <trkpt lat="36.644820" lon="-118.808220">
        <ele>2063.482</ele>
        <time>2018-12-30T03:50:55Z</time>
      </trkpt>
      <trkpt lat="36.644910" lon="-118.808070">
        <ele>2063.562</ele>
        <time>2018-12-30T03:51:15Z</time>
      </trkpt>
      <trkpt lat="36.644970" lon="-118.807950">
        <ele>2063.683</ele>
        <time>2018-12-30T03:51:35Z</time>
      </trkpt>
      <trkpt lat="36.645030" lon="-118.807800">
        <ele>2063.811</ele>
        <time>2018-12-30T03:51:55Z</time>
      </trkpt>
      <trkpt lat="36.645100" lon="-118.807560">
        <ele>2064.308</ele>
        <time>2018-12-30T03:52:15Z</time>
      </trkpt>
      <trkpt lat="36.645170" lon="-118.807300">
        <ele>2065.429</ele>
        <time>2018-12-30T03:52:35Z</time>
      </trkpt>
      <trkpt lat="36.645230" lon="-118.807130">
        <ele>2065.967</ele>
        <time>2018-12-30T03:52:55Z</time>
      </trkpt>
      <trkpt lat="36.645270" lon="-118.806990">
        <ele>2065.942</ele>
        <time>2018-12-30T03:53:15Z</time>
      </trkpt>
      <trkpt lat="36.645300" lon="-118.806940">
        <ele>2066.032</ele>
        <time>2018-12-30T03:53:35Z</time>
      </trkpt>
      <trkpt lat="36.645350" lon="-118.806830">
        <ele>2066.166</ele>
        <time>2018-12-30T03:53:55Z</time>
      </trkpt>
      <trkpt lat="36.645410" lon="-118.806730">
        <ele>2066.226</ele>
        <time>2018-12-30T03:54:15Z</time>
      </trkpt>
      <trkpt lat="36.645430" lon="-118.806690">
        <ele>2066.132</ele>
        <time>2018-12-30T03:54:35Z</time>
      </trkpt>
      <trkpt lat="36.645500" lon="-118.806600">
        <ele>2066.111</ele>
        <time>2018-12-30T03:54:55Z</time>
      </trkpt>
      <trkpt lat="36.645540" lon="-118.806540">
        <ele>2065.756</ele>
        <time>2018-12-30T03:55:15Z</time>
      </trkpt>
      <trkpt lat="36.645580" lon="-118.806500">
        <ele>2065.559</ele>
        <time>2018-12-30T03:55:35Z</time>
      </trkpt>
      <trkpt lat="36.645630" lon="-118.806450">
        <ele>2065.214</ele>
        <time>2018-12-30T03:55:55Z</time>
      </trkpt>
      <trkpt lat="36.645670" lon="-118.806400">
        <ele>2064.908</ele>
        <time>2018-12-30T03:56:15Z</time>
      </trkpt>
      <trkpt lat="36.645730" lon="-118.806350">
        <ele>2064.678</ele>
        <time>2018-12-30T03:56:35Z</time>
      </trkpt>
      <trkpt lat="36.645780" lon="-118.806320">
        <ele>2064.486</ele>
        <time>2018-12-30T03:56:55Z</time>
      </trkpt>
      <trkpt lat="36.645970" lon="-118.806170">
        <ele>2062.851</ele>
        <time>2018-12-30T03:57:15Z</time>
      </trkpt>
      <trkpt lat="36.646050" lon="-118.806110">
        <ele>2061.631</ele>
        <time>2018-12-30T03:57:35Z</time>
      </trkpt>
      <trkpt lat="36.646130" lon="-118.806040">
        <ele>2060.355</ele>
        <time>2018-12-30T03:57:55Z</time>
      </trkpt>
      <trkpt lat="36.646200" lon="-118.805970">
        <ele>2059.235</ele>
        <time>2018-12-30T03:58:15Z</time>
      </trkpt>
      <trkpt lat="36.646240" lon="-118.805910">
        <ele>2058.521</ele>
        <time>2018-12-30T03:58:35Z</time>
      </trkpt>
      <trkpt lat="36.646270" lon="-118.805870">
        <ele>2058.330</ele>
        <time>2018-12-30T03:58:55Z</time>
      </trkpt>
      <trkpt lat="36.646300" lon="-118.805820">
        <ele>2058.273</ele>
        <time>2018-12-30T03:59:15Z</time>
      </trkpt>
      <trkpt lat="36.646330" lon="-118.805770">
        <ele>2058.285</ele>
        <time>2018-12-30T03:59:35Z</time>
      </trkpt>
      <trkpt lat="36.646360" lon="-118.805710">
        <ele>2058.113</ele>
        <time>2018-12-30T03:59:55Z</time>
      </trkpt>
      <trkpt lat="36.646380" lon="-118.805660">
        <ele>2058.108</ele>
        <time>2018-12-30T04:00:15Z</time>
      </trkpt>
      <trkpt lat="36.646400" lon="-118.805600">
        <ele>2058.120</ele>
        <time>2018-12-30T04:00:35Z</time>
      </trkpt>
      <trkpt lat="36.646430" lon="-118.805510">
        <ele>2058.148</ele>
        <time>2018-12-30T04:00:55Z</time>
      </trkpt>
      <trkpt lat="36.646440" lon="-118.805430">
        <ele>2057.883</ele>
        <time>2018-12-30T04:01:15Z</time>
      </trkpt>
      <trkpt lat="36.646450" lon="-118.805370">
        <ele>2057.713</ele>
        <time>2018-12-30T04:01:35Z</time>
      </trkpt>
      <trkpt lat="36.646460" lon="-118.805310">
        <ele>2057.747</ele>
        <time>2018-12-30T04:01:55Z</time>
      </trkpt>
      <trkpt lat="36.646460" lon="-118.805250">
        <ele>2057.457</ele>
        <time>2018-12-30T04:02:15Z</time>
      </trkpt>
      <trkpt lat="36.646460" lon="-118.805190">
        <ele>2057.123</ele>
        <time>2018-12-30T04:02:35Z</time>
      </trkpt>
      <trkpt lat="36.646460" lon="-118.805130">
        <ele>2056.862</ele>
        <time>2018-12-30T04:02:55Z</time>
      </trkpt>
      <trkpt lat="36.646450" lon="-118.805040">
        <ele>2056.562</ele>
        <time>2018-12-30T04:03:15Z</time>
      </trkpt>
      <trkpt lat="36.646430" lon="-118.804960">
        <ele>2055.883</ele>
        <time>2018-12-30T04:03:35Z</time>
      </trkpt>
      <trkpt lat="36.646410" lon="-118.804870">
        <ele>2055.111</ele>
        <time>2018-12-30T04:03:55Z</time>
      </trkpt>
      <trkpt lat="36.646370" lon="-118.804790">
        <ele>2054.008</ele>
        <time>2018-12-30T04:04:15Z</time>
      </trkpt>
      <trkpt lat="36.646340" lon="-118.804700">
        <ele>2053.479</ele>
        <time>2018-12-30T04:04:35Z</time>
      </trkpt>
      <trkpt lat="36.646310" lon="-118.804650">
        <ele>2052.847</ele>
        <time>2018-12-30T04:04:55Z</time>
      </trkpt>
      <trkpt lat="36.646290" lon="-118.804610">
        <ele>2052.492</ele>
        <time>2018-12-30T04:05:15Z</time>
      </trkpt>
      <trkpt lat="36.646220" lon="-118.804520">
        <ele>2050.892</ele>
        <time>2018-12-30T04:05:35Z</time>
      </trkpt>
      <trkpt lat="36.646190" lon="-118.804480">
        <ele>2050.446</ele>
        <time>2018-12-30T04:05:55Z</time>
      </trkpt>
      <trkpt lat="36.646160" lon="-118.804450">
        <ele>2050.116</ele>
        <time>2018-12-30T04:06:15Z</time>
      </trkpt>
      <trkpt lat="36.646110" lon="-118.804400">
        <ele>2049.922</ele>
        <time>2018-12-30T04:06:35Z</time>
      </trkpt>
      <trkpt lat="36.646050" lon="-118.804350">
        <ele>2050.041</ele>
        <time>2018-12-30T04:06:55Z</time>
      </trkpt>
      <trkpt lat="36.645980" lon="-118.804300">
        <ele>2050.355</ele>
        <time>2018-12-30T04:07:15Z</time>
      </trkpt>
      <trkpt lat="36.645920" lon="-118.804270">
        <ele>2050.307</ele>
        <time>2018-12-30T04:07:35Z</time>
      </trkpt>
      <trkpt lat="36.645870" lon="-118.804250">
        <ele>2050.417</ele>
        <time>2018-12-30T04:07:55Z</time>
      </trkpt>
      <trkpt lat="36.645840" lon="-118.804240">
        <ele>2050.608</ele>
        <time>2018-12-30T04:08:15Z</time>
      </trkpt>
      <trkpt lat="36.645820" lon="-118.804230">
        <ele>2050.688</ele>
        <time>2018-12-30T04:08:35Z</time>
      </trkpt>
      <trkpt lat="36.645800" lon="-118.804230">
        <ele>2050.886</ele>
        <time>2018-12-30T04:08:55Z</time>
      </trkpt>
      <trkpt lat="36.645770" lon="-118.804220">
        <ele>2050.931</ele>
        <time>2018-12-30T04:09:15Z</time>
      </trkpt>
      <trkpt lat="36.645730" lon="-118.804220">
        <ele>2051.271</ele>
        <time>2018-12-30T04:09:35Z</time>
      </trkpt>
      <trkpt lat="36.645680" lon="-118.804210">
        <ele>2051.745</ele>
        <time>2018-12-30T04:09:55Z</time>
      </trkpt>
      <trkpt lat="36.645630" lon="-118.804210">
        <ele>2052.775</ele>
        <time>2018-12-30T04:10:15Z</time>
      </trkpt>
      <trkpt lat="36.645570" lon="-118.804210">
        <ele>2053.991</ele>
        <time>2018-12-30T04:10:35Z</time>
      </trkpt>
      <trkpt lat="36.645510" lon="-118.804220">
        <ele>2055.090</ele>
        <time>2018-12-30T04:10:55Z</time>
      </trkpt>
      <trkpt lat="36.645460" lon="-118.804230">
        <ele>2055.876</ele>
        <time>2018-12-30T04:11:15Z</time>
      </trkpt>
      <trkpt lat="36.645400" lon="-118.804250">
        <ele>2056.590</ele>
        <time>2018-12-30T04:11:35Z</time>
      </trkpt>
      <trkpt lat="36.645320" lon="-118.804290">
        <ele>2057.419</ele>
        <time>2018-12-30T04:11:55Z</time>
      </trkpt>
      <trkpt lat="36.645240" lon="-118.804340">
        <ele>2058.308</ele>
        <time>2018-12-30T04:12:15Z</time>
      </trkpt>
      <trkpt lat="36.645160" lon="-118.804400">
        <ele>2058.830</ele>
        <time>2018-12-30T04:12:35Z</time>
      </trkpt>
      <trkpt lat="36.645080" lon="-118.804460">
        <ele>2059.418</ele>
        <time>2018-12-30T04:12:55Z</time>
      </trkpt>
      <trkpt lat="36.645010" lon="-118.804520">
        <ele>2060.153</ele>
        <time>2018-12-30T04:13:15Z</time>
      </trkpt>
      <trkpt lat="36.644830" lon="-118.804670">
        <ele>2063.783</ele>
        <time>2018-12-30T04:13:35Z</time>
      </trkpt>
      <trkpt lat="36.644660" lon="-118.804830">
        <ele>2065.937</ele>
        <time>2018-12-30T04:13:55Z</time>
      </trkpt>
      <trkpt lat="36.644490" lon="-118.804970">
        <ele>2066.347</ele>
        <time>2018-12-30T04:14:15Z</time>
      </trkpt>
      <trkpt lat="36.644170" lon="-118.805240">
        <ele>2068.153</ele>
        <time>2018-12-30T04:14:35Z</time>
      </trkpt>
      <trkpt lat="36.643820" lon="-118.805540">
        <ele>2070.212</ele>
        <time>2018-12-30T04:14:55Z</time>
      </trkpt>
      <trkpt lat="36.643600" lon="-118.805740">
        <ele>2071.675</ele>
        <time>2018-12-30T04:15:15Z</time>
      </trkpt>
      <trkpt lat="36.643470" lon="-118.805840">
        <ele>2072.428</ele>
        <time>2018-12-30T04:15:35Z</time>
      </trkpt>
      <trkpt lat="36.643230" lon="-118.806050">
        <ele>2072.320</ele>
        <time>2018-12-30T04:15:55Z</time>
      </trkpt>
      <trkpt lat="36.642990" lon="-118.806260">
        <ele>2075.708</ele>
        <time>2018-12-30T04:16:15Z</time>
      </trkpt>
      <trkpt lat="36.642870" lon="-118.806370">
        <ele>2079.490</ele>
        <time>2018-12-30T04:16:35Z</time>
      </trkpt>
      <trkpt lat="36.642820" lon="-118.806420">
        <ele>2080.698</ele>
        <time>2018-12-30T04:16:55Z</time>
      </trkpt>
      <trkpt lat="36.642740" lon="-118.806510">
        <ele>2080.823</ele>
        <time>2018-12-30T04:17:15Z</time>
      </trkpt>
      <trkpt lat="36.642650" lon="-118.806600">
        <ele>2080.683</ele>
        <time>2018-12-30T04:17:35Z</time>
      </trkpt>
      <trkpt lat="36.642540" lon="-118.806710">
        <ele>2081.637</ele>
        <time>2018-12-30T04:17:55Z</time>
      </trkpt>
      <trkpt lat="36.642400" lon="-118.806870">
        <ele>2081.027</ele>
        <time>2018-12-30T04:18:15Z</time>
      </trkpt>
      <trkpt lat="36.642260" lon="-118.807040">
        <ele>2081.053</ele>
        <time>2018-12-30T04:18:35Z</time>
      </trkpt>
      <trkpt lat="36.642140" lon="-118.807160">
        <ele>2081.042</ele>
        <time>2018-12-30T04:18:55Z</time>
      </trkpt>
      <trkpt lat="36.642060" lon="-118.807220">
        <ele>2081.871</ele>
        <time>2018-12-30T04:19:15Z</time>
      </trkpt>
      <trkpt lat="36.642000" lon="-118.807270">
        <ele>2081.941</ele>
        <time>2018-12-30T04:19:35Z</time>
      </trkpt>
      <trkpt lat="36.641920" lon="-118.807320">
        <ele>2082.215</ele>
        <time>2018-12-30T04:19:55Z</time>
      </trkpt>
      <trkpt lat="36.641820" lon="-118.807380">
        <ele>2082.408</ele>
        <time>2018-12-30T04:20:15Z</time>
      </trkpt>
      <trkpt lat="36.641720" lon="-118.807430">
        <ele>2082.660</ele>
        <time>2018-12-30T04:20:35Z</time>
      </trkpt>
      <trkpt lat="36.641560" lon="-118.807500">
        <ele>2083.228</ele>
        <time>2018-12-30T04:20:55Z</time>
      </trkpt>
      <trkpt lat="36.641460" lon="-118.807530">
        <ele>2084.213</ele>
        <time>2018-12-30T04:21:15Z</time>
      </trkpt>
      <trkpt lat="36.641330" lon="-118.807560">
        <ele>2085.993</ele>
        <time>2018-12-30T04:21:35Z</time>
      </trkpt>
      <trkpt lat="36.641240" lon="-118.807580">
        <ele>2087.097</ele>
        <time>2018-12-30T04:21:55Z</time>
      </trkpt>
      <trkpt lat="36.641120" lon="-118.807590">
        <ele>2089.217</ele>
        <time>2018-12-30T04:22:15Z</time>
      </trkpt>
      <trkpt lat="36.640990" lon="-118.807590">
        <ele>2091.983</ele>
        <time>2018-12-30T04:22:35Z</time>
      </trkpt>
      <trkpt lat="36.640720" lon="-118.807570">
        <ele>2093.742</ele>
        <time>2018-12-30T04:22:55Z</time>
      </trkpt>
      <trkpt lat="36.640500" lon="-118.807560">
        <ele>2094.234</ele>
        <time>2018-12-30T04:23:15Z</time>
      </trkpt>
      <trkpt lat="36.640280" lon="-118.807540">
        <ele>2094.555</ele>
        <time>2018-12-30T04:23:35Z</time>
      </trkpt>
      <trkpt lat="36.640190" lon="-118.807530">
        <ele>2094.510</ele>
        <time>2018-12-30T04:23:55Z</time>
      </trkpt>
      <trkpt lat="36.640060" lon="-118.807510">
        <ele>2094.408</ele>
        <time>2018-12-30T04:24:15Z</time>
      </trkpt>
      <trkpt lat="36.639960" lon="-118.807500">
        <ele>2094.026</ele>
        <time>2018-12-30T04:24:35Z</time>
      </trkpt>
      <trkpt lat="36.639910" lon="-118.807480">
        <ele>2094.194</ele>
        <time>2018-12-30T04:24:55Z</time>
      </trkpt>
      <trkpt lat="36.639810" lon="-118.807440">
        <ele>2094.339</ele>
        <time>2018-12-30T04:25:15Z</time>
      </trkpt>
      <trkpt lat="36.639730" lon="-118.807400">
        <ele>2094.679</ele>
        <time>2018-12-30T04:25:35Z</time>
      </trkpt>
      <trkpt lat="36.639650" lon="-118.807350">
        <ele>2095.073</ele>
        <time>2018-12-30T04:25:55Z</time>
      </trkpt>
      <trkpt lat="36.639590" lon="-118.807300">
        <ele>2095.653</ele>
        <time>2018-12-30T04:26:15Z</time>
      </trkpt>
      <trkpt lat="36.639490" lon="-118.807220">
        <ele>2097.129</ele>
        <time>2018-12-30T04:26:35Z</time>
      </trkpt>
      <trkpt lat="36.639420" lon="-118.807140">
        <ele>2098.668</ele>
        <time>2018-12-30T04:26:55Z</time>
      </trkpt>
      <trkpt lat="36.639320" lon="-118.807020">
        <ele>2100.523</ele>
        <time>2018-12-30T04:27:15Z</time>
      </trkpt>
      <trkpt lat="36.639260" lon="-118.806920">
        <ele>2100.983</ele>
        <time>2018-12-30T04:27:35Z</time>
      </trkpt>
      <trkpt lat="36.639200" lon="-118.806810">
        <ele>2101.311</ele>
        <time>2018-12-30T04:27:55Z</time>
      </trkpt>
      <trkpt lat="36.639160" lon="-118.806740">
        <ele>2101.408</ele>
        <time>2018-12-30T04:28:15Z</time>
      </trkpt>
      <trkpt lat="36.639110" lon="-118.806600">
        <ele>2101.895</ele>
        <time>2018-12-30T04:28:35Z</time>
      </trkpt>
      <trkpt lat="36.639070" lon="-118.806460">
        <ele>2102.043</ele>
        <time>2018-12-30T04:28:55Z</time>
      </trkpt>
      <trkpt lat="36.639040" lon="-118.806320">
        <ele>2102.118</ele>
        <time>2018-12-30T04:29:15Z</time>
      </trkpt>
      <trkpt lat="36.639030" lon="-118.806210">
        <ele>2102.398</ele>
        <time>2018-12-30T04:29:35Z</time>
      </trkpt>
      <trkpt lat="36.639020" lon="-118.806120">
        <ele>2102.352</ele>
        <time>2018-12-30T04:29:55Z</time>
      </trkpt>
      <trkpt lat="36.639020" lon="-118.805990">
        <ele>2102.762</ele>
        <time>2018-12-30T04:30:15Z</time>
      </trkpt>
      <trkpt lat="36.639020" lon="-118.805870">
        <ele>2103.058</ele>
        <time>2018-12-30T04:30:35Z</time>
      </trkpt>
      <trkpt lat="36.639030" lon="-118.805770">
        <ele>2103.577</ele>
        <time>2018-12-30T04:30:55Z</time>
      </trkpt>
      <trkpt lat="36.639050" lon="-118.805660">
        <ele>2104.441</ele>
        <time>2018-12-30T04:31:15Z</time>
      </trkpt>
      <trkpt lat="36.639070" lon="-118.805560">
        <ele>2105.181</ele>
        <time>2018-12-30T04:31:35Z</time>
      </trkpt>
      <trkpt lat="36.639120" lon="-118.805350">
        <ele>2106.609</ele>
        <time>2018-12-30T04:31:55Z</time>
      </trkpt>
      <trkpt lat="36.639270" lon="-118.804740">
        <ele>2110.908</ele>
        <time>2018-12-30T04:32:15Z</time>
      </trkpt>
      <trkpt lat="36.639330" lon="-118.804560">
        <ele>2111.617</ele>
        <time>2018-12-30T04:32:35Z</time>
      </trkpt>
      <trkpt lat="36.639390" lon="-118.804340">
        <ele>2113.475</ele>
        <time>2018-12-30T04:32:55Z</time>
      </trkpt>
      <trkpt lat="36.639420" lon="-118.804190">
        <ele>2114.440</ele>
        <time>2018-12-30T04:33:15Z</time>
      </trkpt>
      <trkpt lat="36.639430" lon="-118.804150">
        <ele>2114.740</ele>
        <time>2018-12-30T04:33:35Z</time>
      </trkpt>
      <trkpt lat="36.639460" lon="-118.804020">
        <ele>2115.684</ele>
        <time>2018-12-30T04:33:55Z</time>
      </trkpt>
      <trkpt lat="36.639470" lon="-118.803920">
        <ele>2115.964</ele>
        <time>2018-12-30T04:34:15Z</time>
      </trkpt>
      <trkpt lat="36.639480" lon="-118.803830">
        <ele>2116.270</ele>
        <time>2018-12-30T04:34:35Z</time>
      </trkpt>
      <trkpt lat="36.639480" lon="-118.803780">
        <ele>2116.319</ele>
        <time>2018-12-30T04:34:55Z</time>
      </trkpt>
      <trkpt lat="36.639480" lon="-118.803730">
        <ele>2116.324</ele>
        <time>2018-12-30T04:35:15Z</time>
      </trkpt>
      <trkpt lat="36.639470" lon="-118.803690">
        <ele>2116.004</ele>
        <time>2018-12-30T04:35:35Z</time>
      </trkpt>
      <trkpt lat="36.639470" lon="-118.803630">
        <ele>2116.014</ele>
        <time>2018-12-30T04:35:55Z</time>
      </trkpt>
      <trkpt lat="36.639450" lon="-118.803550">
        <ele>2115.508</ele>
        <time>2018-12-30T04:36:15Z</time>
      </trkpt>
      <trkpt lat="36.639440" lon="-118.803470">
        <ele>2115.225</ele>
        <time>2018-12-30T04:36:35Z</time>
      </trkpt>
      <trkpt lat="36.639420" lon="-118.803410">
        <ele>2114.833</ele>
        <time>2018-12-30T04:36:55Z</time>
      </trkpt>
      <trkpt lat="36.639390" lon="-118.803320">
        <ele>2114.218</ele>
        <time>2018-12-30T04:37:15Z</time>
      </trkpt>
      <trkpt lat="36.639350" lon="-118.803220">
        <ele>2113.688</ele>
        <time>2018-12-30T04:37:35Z</time>
      </trkpt>
      <trkpt lat="36.639320" lon="-118.803160">
        <ele>2114.082</ele>
        <time>2018-12-30T04:37:55Z</time>
      </trkpt>
      <trkpt lat="36.639290" lon="-118.803110">
        <ele>2115.132</ele>
        <time>2018-12-30T04:38:15Z</time>
      </trkpt>
      <trkpt lat="36.639220" lon="-118.803010">
        <ele>2117.648</ele>
        <time>2018-12-30T04:38:35Z</time>
      </trkpt>
      <trkpt lat="36.639160" lon="-118.802940">
        <ele>2119.167</ele>
        <time>2018-12-30T04:38:55Z</time>
      </trkpt>
      <trkpt lat="36.639090" lon="-118.802880">
        <ele>2120.132</ele>
        <time>2018-12-30T04:39:15Z</time>
      </trkpt>
      <trkpt lat="36.638990" lon="-118.802810">
        <ele>2120.892</ele>
        <time>2018-12-30T04:39:35Z</time>
      </trkpt>
      <trkpt lat="36.638910" lon="-118.802760">
        <ele>2121.311</ele>
        <time>2018-12-30T04:39:55Z</time>
      </trkpt>
      <trkpt lat="36.638800" lon="-118.802720">
        <ele>2121.508</ele>
        <time>2018-12-30T04:40:15Z</time>
      </trkpt>
      <trkpt lat="36.638750" lon="-118.802710">
        <ele>2121.486</ele>
        <time>2018-12-30T04:40:35Z</time>
      </trkpt>
      <trkpt lat="36.638650" lon="-118.802690">
        <ele>2122.064</ele>
        <time>2018-12-30T04:40:55Z</time>
      </trkpt>
      <trkpt lat="36.638570" lon="-118.802690">
        <ele>2122.259</ele>
        <time>2018-12-30T04:41:15Z</time>
      </trkpt>
      <trkpt lat="36.638460" lon="-118.802700">
        <ele>2122.519</ele>
        <time>2018-12-30T04:41:35Z</time>
      </trkpt>
      <trkpt lat="36.638380" lon="-118.802720">
        <ele>2123.363</ele>
        <time>2018-12-30T04:41:55Z</time>
      </trkpt>
      <trkpt lat="36.638310" lon="-118.802750">
        <ele>2123.663</ele>
        <time>2018-12-30T04:42:15Z</time>
      </trkpt>
      <trkpt lat="36.638240" lon="-118.802780">
        <ele>2123.949</ele>
        <time>2018-12-30T04:42:35Z</time>
      </trkpt>
      <trkpt lat="36.638180" lon="-118.802810">
        <ele>2124.398</ele>
        <time>2018-12-30T04:42:55Z</time>
      </trkpt>
      <trkpt lat="36.638130" lon="-118.802850">
        <ele>2124.831</ele>
        <time>2018-12-30T04:43:15Z</time>
      </trkpt>
      <trkpt lat="36.638060" lon="-118.802910">
        <ele>2125.661</ele>
        <time>2018-12-30T04:43:35Z</time>
      </trkpt>
      <trkpt lat="36.638000" lon="-118.802970">
        <ele>2127.007</ele>
        <time>2018-12-30T04:43:55Z</time>
      </trkpt>
      <trkpt lat="36.637870" lon="-118.803130">
        <ele>2129.808</ele>
        <time>2018-12-30T04:44:15Z</time>
      </trkpt>
      <trkpt lat="36.637830" lon="-118.803220">
        <ele>2130.426</ele>
        <time>2018-12-30T04:44:35Z</time>
      </trkpt>
      <trkpt lat="36.637770" lon="-118.803340">
        <ele>2131.224</ele>
        <time>2018-12-30T04:44:55Z</time>
      </trkpt>
      <trkpt lat="36.637730" lon="-118.803470">
        <ele>2131.489</ele>
        <time>2018-12-30T04:45:15Z</time>
      </trkpt>
      <trkpt lat="36.637710" lon="-118.803600">
        <ele>2131.299</ele>
        <time>2018-12-30T04:45:35Z</time>
      </trkpt>
      <trkpt lat="36.637660" lon="-118.803820">
        <ele>2131.573</ele>
        <time>2018-12-30T04:45:55Z</time>
      </trkpt>
      <trkpt lat="36.637640" lon="-118.803960">
        <ele>2131.363</ele>
        <time>2018-12-30T04:46:15Z</time>
      </trkpt>
      <trkpt lat="36.637600" lon="-118.804180">
        <ele>2131.319</ele>
        <time>2018-12-30T04:46:35Z</time>
      </trkpt>
      <trkpt lat="36.637560" lon="-118.804360">
        <ele>2131.728</ele>
        <time>2018-12-30T04:46:55Z</time>
      </trkpt>
      <trkpt lat="36.637530" lon="-118.804460">
        <ele>2132.844</ele>
        <time>2018-12-30T04:47:15Z</time>
      </trkpt>
      <trkpt lat="36.637470" lon="-118.804590">
        <ele>2135.005</ele>
        <time>2018-12-30T04:47:35Z</time>
      </trkpt>
      <trkpt lat="36.637420" lon="-118.804690">
        <ele>2136.215</ele>
        <time>2018-12-30T04:47:55Z</time>
      </trkpt>
      <trkpt lat="36.637360" lon="-118.804770">
        <ele>2138.308</ele>
        <time>2018-12-30T04:48:15Z</time>
      </trkpt>
      <trkpt lat="36.637340" lon="-118.804800">
        <ele>2138.667</ele>
        <time>2018-12-30T04:48:35Z</time>
      </trkpt>
      <trkpt lat="36.637320" lon="-118.804830">
        <ele>2138.995</ele>
        <time>2018-12-30T04:48:55Z</time>
      </trkpt>
      <trkpt lat="36.637280" lon="-118.804860">
        <ele>2139.580</ele>
        <time>2018-12-30T04:49:15Z</time>
      </trkpt>
      <trkpt lat="36.637230" lon="-118.804910">
        <ele>2139.450</ele>
        <time>2018-12-30T04:49:35Z</time>
      </trkpt>
      <trkpt lat="36.637180" lon="-118.804940">
        <ele>2139.744</ele>
        <time>2018-12-30T04:49:55Z</time>
      </trkpt>
      <trkpt lat="36.637130" lon="-118.804980">
        <ele>2139.974</ele>
        <time>2018-12-30T04:50:15Z</time>
      </trkpt>
      <trkpt lat="36.637060" lon="-118.805010">
        <ele>2140.320</ele>
        <time>2018-12-30T04:50:35Z</time>
      </trkpt>
      <trkpt lat="36.636990" lon="-118.805040">
        <ele>2140.379</ele>
        <time>2018-12-30T04:50:55Z</time>
      </trkpt>
      <trkpt lat="36.636910" lon="-118.805060">
        <ele>2140.473</ele>
        <time>2018-12-30T04:51:15Z</time>
      </trkpt>
      <trkpt lat="36.636850" lon="-118.805070">
        <ele>2140.685</ele>
        <time>2018-12-30T04:51:35Z</time>
      </trkpt>
      <trkpt lat="36.636810" lon="-118.805080">
        <ele>2140.613</ele>
        <time>2018-12-30T04:51:55Z</time>
      </trkpt>
      <trkpt lat="36.636720" lon="-118.805080">
        <ele>2141.008</ele>
        <time>2018-12-30T04:52:15Z</time>
      </trkpt>
      <trkpt lat="36.636660" lon="-118.805080">
        <ele>2141.320</ele>
        <time>2018-12-30T04:52:35Z</time>
      </trkpt>
      <trkpt lat="36.636590" lon="-118.805080">
        <ele>2141.698</ele>
        <time>2018-12-30T04:52:55Z</time>
      </trkpt>
      <trkpt lat="36.636500" lon="-118.805070">
        <ele>2142.423</ele>
        <time>2018-12-30T04:53:15Z</time>
      </trkpt>
      <trkpt lat="36.636420" lon="-118.805070">
        <ele>2143.263</ele>
        <time>2018-12-30T04:53:35Z</time>
      </trkpt>
      <trkpt lat="36.636310" lon="-118.805070">
        <ele>2144.257</ele>
        <time>2018-12-30T04:53:55Z</time>
      </trkpt>
      <trkpt lat="36.636230" lon="-118.805080">
        <ele>2144.717</ele>
        <time>2018-12-30T04:54:15Z</time>
      </trkpt>
      <trkpt lat="36.636160" lon="-118.805090">
        <ele>2145.393</ele>
        <time>2018-12-30T04:54:35Z</time>
      </trkpt>
      <trkpt lat="36.636110" lon="-118.805110">
        <ele>2145.342</ele>
        <time>2018-12-30T04:54:55Z</time>
      </trkpt>
      <trkpt lat="36.636020" lon="-118.805130">
        <ele>2145.765</ele>
        <time>2018-12-30T04:55:15Z</time>
      </trkpt>
      <trkpt lat="36.635920" lon="-118.805160">
        <ele>2145.768</ele>
        <time>2018-12-30T04:55:35Z</time>
      </trkpt>
      <trkpt lat="36.635770" lon="-118.805220">
        <ele>2145.214</ele>
        <time>2018-12-30T04:55:55Z</time>
      </trkpt>
      <trkpt lat="36.635680" lon="-118.805250">
        <ele>2145.108</ele>
        <time>2018-12-30T04:56:15Z</time>
      </trkpt>
      <trkpt lat="36.635620" lon="-118.805270">
        <ele>2145.429</ele>
        <time>2018-12-30T04:56:35Z</time>
      </trkpt>
      <trkpt lat="36.635570" lon="-118.805280">
        <ele>2145.927</ele>
        <time>2018-12-30T04:56:55Z</time>
      </trkpt>
      <trkpt lat="36.635510" lon="-118.805290">
        <ele>2146.542</ele>
        <time>2018-12-30T04:57:15Z</time>
      </trkpt>
      <trkpt lat="36.635470" lon="-118.805290">
        <ele>2147.282</ele>
        <time>2018-12-30T04:57:35Z</time>
      </trkpt>
      <trkpt lat="36.635440" lon="-118.805290">
        <ele>2147.626</ele>
        <time>2018-12-30T04:57:55Z</time>
      </trkpt>
      <trkpt lat="36.635360" lon="-118.805290">
        <ele>2148.516</ele>
        <time>2018-12-30T04:58:15Z</time>
      </trkpt>
      <trkpt lat="36.635290" lon="-118.805280">
        <ele>2149.552</ele>
        <time>2018-12-30T04:58:35Z</time>
      </trkpt>
      <trkpt lat="36.635240" lon="-118.805270">
        <ele>2150.281</ele>
        <time>2018-12-30T04:58:55Z</time>
      </trkpt>
      <trkpt lat="36.635140" lon="-118.805250">
        <ele>2151.741</ele>
        <time>2018-12-30T04:59:15Z</time>
      </trkpt>
      <trkpt lat="36.635030" lon="-118.805210">
        <ele>2152.081</ele>
        <time>2018-12-30T04:59:35Z</time>
      </trkpt>
      <trkpt lat="36.634900" lon="-118.805160">
        <ele>2152.509</ele>
        <time>2018-12-30T04:59:55Z</time>
      </trkpt>
      <trkpt lat="36.634570" lon="-118.805040">
        <ele>2152.808</ele>
        <time>2018-12-30T05:00:15Z</time>
      </trkpt>
      <trkpt lat="36.634350" lon="-118.804970">
        <ele>2153.927</ele>
        <time>2018-12-30T05:00:35Z</time>
      </trkpt>
      <trkpt lat="36.633660" lon="-118.804720">
        <ele>2157.015</ele>
        <time>2018-12-30T05:00:55Z</time>
      </trkpt>
      <trkpt lat="36.633350" lon="-118.804610">
        <ele>2157.850</ele>
        <time>2018-12-30T05:01:15Z</time>
      </trkpt>
      <trkpt lat="36.633160" lon="-118.804540">
        <ele>2158.180</ele>
        <time>2018-12-30T05:01:35Z</time>
      </trkpt>
      <trkpt lat="36.632890" lon="-118.804450">
        <ele>2158.284</ele>
        <time>2018-12-30T05:01:55Z</time>
      </trkpt>
      <trkpt lat="36.632730" lon="-118.804400">
        <ele>2158.314</ele>
        <time>2018-12-30T05:02:15Z</time>
      </trkpt>
      <trkpt lat="36.632470" lon="-118.804340">
        <ele>2159.170</ele>
        <time>2018-12-30T05:02:35Z</time>
      </trkpt>
      <trkpt lat="36.632310" lon="-118.804320">
        <ele>2160.459</ele>
        <time>2018-12-30T05:02:55Z</time>
      </trkpt>
      <trkpt lat="36.632140" lon="-118.804320">
        <ele>2162.962</ele>
        <time>2018-12-30T05:03:15Z</time>
      </trkpt>
      <trkpt lat="36.632040" lon="-118.804310">
        <ele>2164.383</ele>
        <time>2018-12-30T05:03:35Z</time>
      </trkpt>
      <trkpt lat="36.631940" lon="-118.804330">
        <ele>2164.811</ele>
        <time>2018-12-30T05:03:55Z</time>
      </trkpt>
      <trkpt lat="36.631680" lon="-118.804370">
        <ele>2166.408</ele>
        <time>2018-12-30T05:04:15Z</time>
      </trkpt>
      <trkpt lat="36.631410" lon="-118.804410">
        <ele>2167.719</ele>
        <time>2018-12-30T05:04:35Z</time>
      </trkpt>
      <trkpt lat="36.631350" lon="-118.804420">
        <ele>2167.987</ele>
        <time>2018-12-30T05:04:55Z</time>
      </trkpt>
      <trkpt lat="36.631260" lon="-118.804420">
        <ele>2168.692</ele>
        <time>2018-12-30T05:05:15Z</time>
      </trkpt>
      <trkpt lat="36.631180" lon="-118.804420">
        <ele>2169.322</ele>
        <time>2018-12-30T05:05:35Z</time>
      </trkpt>
      <trkpt lat="36.631090" lon="-118.804410">
        <ele>2170.256</ele>
        <time>2018-12-30T05:05:55Z</time>
      </trkpt>
      <trkpt lat="36.631010" lon="-118.804400">
        <ele>2170.946</ele>
        <time>2018-12-30T05:06:15Z</time>
      </trkpt>
      <trkpt lat="36.630920" lon="-118.804370">
        <ele>2172.152</ele>
        <time>2018-12-30T05:06:35Z</time>
      </trkpt>
      <trkpt lat="36.630820" lon="-118.804340">
        <ele>2173.851</ele>
        <time>2018-12-30T05:06:55Z</time>
      </trkpt>
      <trkpt lat="36.630550" lon="-118.804230">
        <ele>2176.587</ele>
        <time>2018-12-30T05:07:15Z</time>
      </trkpt>
      <trkpt lat="36.630460" lon="-118.804200">
        <ele>2176.342</ele>
        <time>2018-12-30T05:07:35Z</time>
      </trkpt>
      <trkpt lat="36.630410" lon="-118.804180">
        <ele>2176.226</ele>
        <time>2018-12-30T05:07:55Z</time>
      </trkpt>
      <trkpt lat="36.630330" lon="-118.804160">
        <ele>2176.308</ele>
        <time>2018-12-30T05:08:15Z</time>
      </trkpt>
      <trkpt lat="36.630210" lon="-118.804150">
        <ele>2176.241</ele>
        <time>2018-12-30T05:08:35Z</time>
      </trkpt>
      <trkpt lat="36.630090" lon="-118.804160">
        <ele>2176.779</ele>
        <time>2018-12-30T05:08:55Z</time>
      </trkpt>
      <trkpt lat="36.630020" lon="-118.804170">
        <ele>2177.764</ele>
        <time>2018-12-30T05:09:15Z</time>
      </trkpt>
      <trkpt lat="36.629950" lon="-118.804190">
        <ele>2178.574</ele>
        <time>2018-12-30T05:09:35Z</time>
      </trkpt>
      <trkpt lat="36.629850" lon="-118.804220">
        <ele>2179.598</ele>
        <time>2018-12-30T05:09:55Z</time>
      </trkpt>
      <trkpt lat="36.629770" lon="-118.804260">
        <ele>2180.278</ele>
        <time>2018-12-30T05:10:15Z</time>
      </trkpt>
      <trkpt lat="36.629680" lon="-118.804310">
        <ele>2181.034</ele>
        <time>2018-12-30T05:10:35Z</time>
      </trkpt>
      <trkpt lat="36.629580" lon="-118.804380">
        <ele>2181.723</ele>
        <time>2018-12-30T05:10:55Z</time>
      </trkpt>
      <trkpt lat="36.629460" lon="-118.804480">
        <ele>2182.981</ele>
        <time>2018-12-30T05:11:15Z</time>
      </trkpt>
      <trkpt lat="36.629300" lon="-118.804620">
        <ele>2183.861</ele>
        <time>2018-12-30T05:11:35Z</time>
      </trkpt>
      <trkpt lat="36.629150" lon="-118.804720">
        <ele>2187.817</ele>
        <time>2018-12-30T05:11:55Z</time>
      </trkpt>
      <trkpt lat="36.629070" lon="-118.804770">
        <ele>2189.008</ele>
        <time>2018-12-30T05:12:15Z</time>
      </trkpt>
      <trkpt lat="36.629030" lon="-118.804800">
        <ele>2189.341</ele>
        <time>2018-12-30T05:12:35Z</time>
      </trkpt>
      <trkpt lat="36.629010" lon="-118.804810">
        <ele>2189.599</ele>
        <time>2018-12-30T05:12:55Z</time>
      </trkpt>
      <trkpt lat="36.628940" lon="-118.804850">
        <ele>2189.864</ele>
        <time>2018-12-30T05:13:15Z</time>
      </trkpt>
      <trkpt lat="36.628850" lon="-118.804890">
        <ele>2190.374</ele>
        <time>2018-12-30T05:13:35Z</time>
      </trkpt>
      <trkpt lat="36.628630" lon="-118.804990">
        <ele>2191.788</ele>
        <time>2018-12-30T05:13:55Z</time>
      </trkpt>
      <trkpt lat="36.628170" lon="-118.805200">
        <ele>2192.438</ele>
        <time>2018-12-30T05:14:15Z</time>
      </trkpt>
      <trkpt lat="36.627870" lon="-118.805330">
        <ele>2194.074</ele>
        <time>2018-12-30T05:14:35Z</time>
      </trkpt>
      <trkpt lat="36.627570" lon="-118.805470">
        <ele>2195.163</ele>
        <time>2018-12-30T05:14:55Z</time>
      </trkpt>
      <trkpt lat="36.627250" lon="-118.805610">
        <ele>2200.082</ele>
        <time>2018-12-30T05:15:15Z</time>
      </trkpt>
      <trkpt lat="36.627060" lon="-118.805690">
        <ele>2202.443</ele>
        <time>2018-12-30T05:15:35Z</time>
      </trkpt>
      <trkpt lat="36.626790" lon="-118.805810">
        <ele>2202.917</ele>
        <time>2018-12-30T05:15:55Z</time>
      </trkpt>
      <trkpt lat="36.626060" lon="-118.806140">
        <ele>2210.808</ele>
        <time>2018-12-30T05:16:15Z</time>
      </trkpt>
      <trkpt lat="36.625990" lon="-118.806170">
        <ele>2211.441</ele>
        <time>2018-12-30T05:16:35Z</time>
      </trkpt>
      <trkpt lat="36.625890" lon="-118.806210">
        <ele>2211.769</ele>
        <time>2018-12-30T05:16:55Z</time>
      </trkpt>
      <trkpt lat="36.625250" lon="-118.806490">
        <ele>2209.924</ele>
        <time>2018-12-30T05:17:15Z</time>
      </trkpt>
      <trkpt lat="36.624540" lon="-118.806820">
        <ele>2209.144</ele>
        <time>2018-12-30T05:17:35Z</time>
      </trkpt>
      <trkpt lat="36.624430" lon="-118.806870">
        <ele>2209.168</ele>
        <time>2018-12-30T05:17:55Z</time>
      </trkpt>
      <trkpt lat="36.624360" lon="-118.806910">
        <ele>2209.058</ele>
        <time>2018-12-30T05:18:15Z</time>
      </trkpt>
      <trkpt lat="36.624260" lon="-118.806960">
        <ele>2209.424</ele>
        <time>2018-12-30T05:18:35Z</time>
      </trkpt>
      <trkpt lat="36.624180" lon="-118.807010">
        <ele>2210.123</ele>
        <time>2018-12-30T05:18:55Z</time>
      </trkpt>
      <trkpt lat="36.624100" lon="-118.807060">
        <ele>2210.883</ele>
        <time>2018-12-30T05:19:15Z</time>
      </trkpt>
      <trkpt lat="36.624010" lon="-118.807130">
        <ele>2211.525</ele>
        <time>2018-12-30T05:19:35Z</time>
      </trkpt>
      <trkpt lat="36.623850" lon="-118.807240">
        <ele>2212.817</ele>
        <time>2018-12-30T05:19:55Z</time>
      </trkpt>
      <trkpt lat="36.623700" lon="-118.807350">
        <ele>2213.708</ele>
        <time>2018-12-30T05:20:15Z</time>
      </trkpt>
      <trkpt lat="36.623590" lon="-118.807430">
        <ele>2213.771</ele>
        <time>2018-12-30T05:20:35Z</time>
      </trkpt>
      <trkpt lat="36.623480" lon="-118.807500">
        <ele>2213.969</ele>
        <time>2018-12-30T05:20:55Z</time>
      </trkpt>
      <trkpt lat="36.623330" lon="-118.807610">
        <ele>2214.144</ele>
        <time>2018-12-30T05:21:15Z</time>
      </trkpt>
      <trkpt lat="36.623100" lon="-118.807770">
        <ele>2214.474</ele>
        <time>2018-12-30T05:21:35Z</time>
      </trkpt>
      <trkpt lat="36.622760" lon="-118.808010">
        <ele>2217.148</ele>
        <time>2018-12-30T05:21:55Z</time>
      </trkpt>
      <trkpt lat="36.622290" lon="-118.808350">
        <ele>2225.488</ele>
        <time>2018-12-30T05:22:15Z</time>
      </trkpt>
      <trkpt lat="36.622070" lon="-118.808510">
        <ele>2226.044</ele>
        <time>2018-12-30T05:22:35Z</time>
      </trkpt>
      <trkpt lat="36.621930" lon="-118.808610">
        <ele>2227.143</ele>
        <time>2018-12-30T05:22:55Z</time>
      </trkpt>
      <trkpt lat="36.621830" lon="-118.808670">
        <ele>2228.668</ele>
        <time>2018-12-30T05:23:15Z</time>
      </trkpt>
      <trkpt lat="36.621750" lon="-118.808730">
        <ele>2229.642</ele>
        <time>2018-12-30T05:23:35Z</time>
      </trkpt>
      <trkpt lat="36.621660" lon="-118.808780">
        <ele>2230.526</ele>
        <time>2018-12-30T05:23:55Z</time>
      </trkpt>
      <trkpt lat="36.621560" lon="-118.808840">
        <ele>2231.308</ele>
        <time>2018-12-30T05:24:15Z</time>
      </trkpt>
      <trkpt lat="36.621450" lon="-118.808900">
        <ele>2231.999</ele>
        <time>2018-12-30T05:24:35Z</time>
      </trkpt>
      <trkpt lat="36.621370" lon="-118.808940">
        <ele>2232.227</ele>
        <time>2018-12-30T05:24:55Z</time>
      </trkpt>
      <trkpt lat="36.621300" lon="-118.808970">
        <ele>2232.722</ele>
        <time>2018-12-30T05:25:15Z</time>
      </trkpt>
      <trkpt lat="36.621160" lon="-118.809040">
        <ele>2233.372</ele>
        <time>2018-12-30T05:25:35Z</time>
      </trkpt>
      <trkpt lat="36.621050" lon="-118.809080">
        <ele>2234.116</ele>
        <time>2018-12-30T05:25:55Z</time>
      </trkpt>
      <trkpt lat="36.620960" lon="-118.809120">
        <ele>2234.756</ele>
        <time>2018-12-30T05:26:15Z</time>
      </trkpt>
      <trkpt lat="36.620870" lon="-118.809150">
        <ele>2235.662</ele>
        <time>2018-12-30T05:26:35Z</time>
      </trkpt>
      <trkpt lat="36.620770" lon="-118.809180">
        <ele>2236.751</ele>
        <time>2018-12-30T05:26:55Z</time>
      </trkpt>
      <trkpt lat="36.620690" lon="-118.809200">
        <ele>2237.767</ele>
        <time>2018-12-30T05:27:15Z</time>
      </trkpt>
      <trkpt lat="36.620520" lon="-118.809240">
        <ele>2239.181</ele>
        <time>2018-12-30T05:27:35Z</time>
      </trkpt>
      <trkpt lat="36.620320" lon="-118.809280">
        <ele>2240.119</ele>
        <time>2018-12-30T05:27:55Z</time>
      </trkpt>
      <trkpt lat="36.620140" lon="-118.809300">
        <ele>2240.408</ele>
        <time>2018-12-30T05:28:15Z</time>
      </trkpt>
      <trkpt lat="36.620070" lon="-118.809310">
        <ele>2240.029</ele>
        <time>2018-12-30T05:28:35Z</time>
      </trkpt>
      <trkpt lat="36.619990" lon="-118.809320">
        <ele>2239.527</ele>
        <time>2018-12-30T05:28:55Z</time>
      </trkpt>
      <trkpt lat="36.619910" lon="-118.809330">
        <ele>2239.042</ele>
        <time>2018-12-30T05:29:15Z</time>
      </trkpt>
      <trkpt lat="36.619840" lon="-118.809330">
        <ele>2238.872</ele>
        <time>2018-12-30T05:29:35Z</time>
      </trkpt>
      <trkpt lat="36.619690" lon="-118.809330">
        <ele>2239.446</ele>
        <time>2018-12-30T05:29:55Z</time>
      </trkpt>
      <trkpt lat="36.619570" lon="-118.809330">
        <ele>2239.776</ele>
        <time>2018-12-30T05:30:15Z</time>
      </trkpt>
      <trkpt lat="36.619420" lon="-118.809320">
        <ele>2237.932</ele>
        <time>2018-12-30T05:30:35Z</time>
      </trkpt>
      <trkpt lat="36.619270" lon="-118.809300">
        <ele>2236.361</ele>
        <time>2018-12-30T05:30:55Z</time>
      </trkpt>
      <trkpt lat="36.619200" lon="-118.809290">
        <ele>2236.037</ele>
        <time>2018-12-30T05:31:15Z</time>
      </trkpt>
      <trkpt lat="36.619130" lon="-118.809280">
        <ele>2235.749</ele>
        <time>2018-12-30T05:31:35Z</time>
      </trkpt>
      <trkpt lat="36.618990" lon="-118.809250">
        <ele>2235.213</ele>
        <time>2018-12-30T05:31:55Z</time>
      </trkpt>
      <trkpt lat="36.618910" lon="-118.809240">
        <ele>2234.708</ele>
        <time>2018-12-30T05:32:15Z</time>
      </trkpt>
      <trkpt lat="36.618820" lon="-118.809220">
        <ele>2234.316</ele>
        <time>2018-12-30T05:32:35Z</time>
      </trkpt>
      <trkpt lat="36.618750" lon="-118.809200">
        <ele>2234.134</ele>
        <time>2018-12-30T05:32:55Z</time>
      </trkpt>
      <trkpt lat="36.618660" lon="-118.809170">
        <ele>2233.529</ele>
        <time>2018-12-30T05:33:15Z</time>
      </trkpt>
      <trkpt lat="36.618500" lon="-118.809120">
        <ele>2232.779</ele>
        <time>2018-12-30T05:33:35Z</time>
      </trkpt>
      <trkpt lat="36.617980" lon="-118.808940">
        <ele>2228.353</ele>
        <time>2018-12-30T05:33:55Z</time>
      </trkpt>
      <trkpt lat="36.617600" lon="-118.808810">
        <ele>2224.943</ele>
        <time>2018-12-30T05:34:15Z</time>
      </trkpt>
      <trkpt lat="36.616680" lon="-118.808510">
        <ele>2220.119</ele>
        <time>2018-12-30T05:34:35Z</time>
      </trkpt>
      <trkpt lat="36.616120" lon="-118.808330">
        <ele>2215.488</ele>
        <time>2018-12-30T05:34:55Z</time>
      </trkpt>
      <trkpt lat="36.615950" lon="-118.808290">
        <ele>2213.066</ele>
        <time>2018-12-30T05:35:15Z</time>
      </trkpt>
      <trkpt lat="36.615840" lon="-118.808270">
        <ele>2211.929</ele>
        <time>2018-12-30T05:35:35Z</time>
      </trkpt>
      <trkpt lat="36.615730" lon="-118.808250">
        <ele>2211.221</ele>
        <time>2018-12-30T05:35:55Z</time>
      </trkpt>
      <trkpt lat="36.615580" lon="-118.808220">
        <ele>2211.408</ele>
        <time>2018-12-30T05:36:15Z</time>
      </trkpt>
      <trkpt lat="36.615160" lon="-118.808180">
        <ele>2209.359</ele>
        <time>2018-12-30T05:36:35Z</time>
      </trkpt>
      <trkpt lat="36.614920" lon="-118.808160">
        <ele>2209.067</ele>
        <time>2018-12-30T05:36:55Z</time>
      </trkpt>
      <trkpt lat="36.614770" lon="-118.808150">
        <ele>2207.832</ele>
        <time>2018-12-30T05:37:15Z</time>
      </trkpt>
      <trkpt lat="36.614670" lon="-118.808130">
        <ele>2207.312</ele>
        <time>2018-12-30T05:37:35Z</time>
      </trkpt>
      <trkpt lat="36.614580" lon="-118.808110">
        <ele>2206.876</ele>
        <time>2018-12-30T05:37:55Z</time>
      </trkpt>
      <trkpt lat="36.614510" lon="-118.808100">
        <ele>2205.916</ele>
        <time>2018-12-30T05:38:15Z</time>
      </trkpt>
      <trkpt lat="36.614450" lon="-118.808080">
        <ele>2205.782</ele>
        <time>2018-12-30T05:38:35Z</time>
      </trkpt>
      <trkpt lat="36.614020" lon="-118.807950">
        <ele>2204.791</ele>
        <time>2018-12-30T05:38:55Z</time>
      </trkpt>
      <trkpt lat="36.613740" lon="-118.807860">
        <ele>2200.444</ele>
        <time>2018-12-30T05:39:15Z</time>
      </trkpt>
      <trkpt lat="36.613620" lon="-118.807830">
        <ele>2199.905</ele>
        <time>2018-12-30T05:39:35Z</time>
      </trkpt>
      <trkpt lat="36.613500" lon="-118.807820">
        <ele>2198.715</ele>
        <time>2018-12-30T05:39:55Z</time>
      </trkpt>
      <trkpt lat="36.613380" lon="-118.807800">
        <ele>2198.608</ele>
        <time>2018-12-30T05:40:15Z</time>
      </trkpt>
      <trkpt lat="36.613240" lon="-118.807790">
        <ele>2198.227</ele>
        <time>2018-12-30T05:40:35Z</time>
      </trkpt>
      <trkpt lat="36.613130" lon="-118.807790">
        <ele>2198.385</ele>
        <time>2018-12-30T05:40:55Z</time>
      </trkpt>
      <trkpt lat="36.613020" lon="-118.807800">
        <ele>2198.570</ele>
        <time>2018-12-30T05:41:15Z</time>
      </trkpt>
      <trkpt lat="36.612910" lon="-118.807810">
        <ele>2198.850</ele>
        <time>2018-12-30T05:41:35Z</time>
      </trkpt>
      <trkpt lat="36.612660" lon="-118.807840">
        <ele>2198.314</ele>
        <time>2018-12-30T05:41:55Z</time>
      </trkpt>
      <trkpt lat="36.612610" lon="-118.807850">
        <ele>2197.714</ele>
        <time>2018-12-30T05:42:15Z</time>
      </trkpt>
      <trkpt lat="36.612580" lon="-118.807850">
        <ele>2197.420</ele>
        <time>2018-12-30T05:42:35Z</time>
      </trkpt>
      <trkpt lat="36.612540" lon="-118.807850">
        <ele>2197.079</ele>
        <time>2018-12-30T05:42:55Z</time>
      </trkpt>
      <trkpt lat="36.612500" lon="-118.807840">
        <ele>2197.094</ele>
        <time>2018-12-30T05:43:15Z</time>
      </trkpt>
      <trkpt lat="36.612470" lon="-118.807840">
        <ele>2196.757</ele>
        <time>2018-12-30T05:43:35Z</time>
      </trkpt>
      <trkpt lat="36.612430" lon="-118.807830">
        <ele>2196.822</ele>
        <time>2018-12-30T05:43:55Z</time>
      </trkpt>
      <trkpt lat="36.612390" lon="-118.807830">
        <ele>2196.408</ele>
        <time>2018-12-30T05:44:15Z</time>
      </trkpt>
      <trkpt lat="36.612340" lon="-118.807810">
        <ele>2196.532</ele>
        <time>2018-12-30T05:44:35Z</time>
      </trkpt>
      <trkpt lat="36.612290" lon="-118.807800">
        <ele>2195.980</ele>
        <time>2018-12-30T05:44:55Z</time>
      </trkpt>
      <trkpt lat="36.612230" lon="-118.807770">
        <ele>2196.135</ele>
        <time>2018-12-30T05:45:15Z</time>
      </trkpt>
      <trkpt lat="36.612160" lon="-118.807740">
        <ele>2196.415</ele>
        <time>2018-12-30T05:45:35Z</time>
      </trkpt>
      <trkpt lat="36.612120" lon="-118.807730">
        <ele>2196.369</ele>
        <time>2018-12-30T05:45:55Z</time>
      </trkpt>
      <trkpt lat="36.612070" lon="-118.807710">
        <ele>2196.739</ele>
        <time>2018-12-30T05:46:15Z</time>
      </trkpt>
      <trkpt lat="36.612020" lon="-118.807700">
        <ele>2196.895</ele>
        <time>2018-12-30T05:46:35Z</time>
      </trkpt>
      <trkpt lat="36.611970" lon="-118.807690">
        <ele>2196.964</ele>
        <time>2018-12-30T05:46:55Z</time>
      </trkpt>
      <trkpt lat="36.611930" lon="-118.807680">
        <ele>2197.277</ele>
        <time>2018-12-30T05:47:15Z</time>
      </trkpt>
      <trkpt lat="36.611870" lon="-118.807680">
        <ele>2196.661</ele>
        <time>2018-12-30T05:47:35Z</time>
      </trkpt>
      <trkpt lat="36.611830" lon="-118.807680">
        <ele>2196.327</ele>
        <time>2018-12-30T05:47:55Z</time>
      </trkpt>
      <trkpt lat="36.611750" lon="-118.807690">
        <ele>2194.608</ele>
        <time>2018-12-30T05:48:15Z</time>
      </trkpt>
      <trkpt lat="36.611660" lon="-118.807700">
        <ele>2192.760</ele>
        <time>2018-12-30T05:48:35Z</time>
      </trkpt>
      <trkpt lat="36.611570" lon="-118.807710">
        <ele>2190.948</ele>
        <time>2018-12-30T05:48:55Z</time>
      </trkpt>
      <trkpt lat="36.611510" lon="-118.807710">
        <ele>2189.913</ele>
        <time>2018-12-30T05:49:15Z</time>
      </trkpt>
      <trkpt lat="36.611440" lon="-118.807710">
        <ele>2188.233</ele>
        <time>2018-12-30T05:49:35Z</time>
      </trkpt>
      <trkpt lat="36.611380" lon="-118.807700">
        <ele>2187.297</ele>
        <time>2018-12-30T05:49:55Z</time>
      </trkpt>
      <trkpt lat="36.611320" lon="-118.807700">
        <ele>2185.837</ele>
        <time>2018-12-30T05:50:15Z</time>
      </trkpt>
      <trkpt lat="36.611260" lon="-118.807680">
        <ele>2185.143</ele>
        <time>2018-12-30T05:50:35Z</time>
      </trkpt>
      <trkpt lat="36.611200" lon="-118.807660">
        <ele>2184.742</ele>
        <time>2018-12-30T05:50:55Z</time>
      </trkpt>
      <trkpt lat="36.611110" lon="-118.807630">
        <ele>2184.395</ele>
        <time>2018-12-30T05:51:15Z</time>
      </trkpt>
      <trkpt lat="36.611030" lon="-118.807600">
        <ele>2184.049</ele>
        <time>2018-12-30T05:51:35Z</time>
      </trkpt>
      <trkpt lat="36.610890" lon="-118.807540">
        <ele>2183.623</ele>
        <time>2018-12-30T05:51:55Z</time>
      </trkpt>
      <trkpt lat="36.610460" lon="-118.807320">
        <ele>2184.908</ele>
        <time>2018-12-30T05:52:15Z</time>
      </trkpt>
      <trkpt lat="36.610400" lon="-118.807290">
        <ele>2184.872</ele>
        <time>2018-12-30T05:52:35Z</time>
      </trkpt>
      <trkpt lat="36.610330" lon="-118.807260">
        <ele>2184.470</ele>
        <time>2018-12-30T05:52:55Z</time>
      </trkpt>
      <trkpt lat="36.610260" lon="-118.807240">
        <ele>2183.635</ele>
        <time>2018-12-30T05:53:15Z</time>
      </trkpt>
      <trkpt lat="36.610200" lon="-118.807220">
        <ele>2183.035</ele>
        <time>2018-12-30T05:53:35Z</time>
      </trkpt>
      <trkpt lat="36.610100" lon="-118.807200">
        <ele>2181.289</ele>
        <time>2018-12-30T05:53:55Z</time>
      </trkpt>
      <trkpt lat="36.610020" lon="-118.807190">
        <ele>2179.069</ele>
        <time>2018-12-30T05:54:15Z</time>
      </trkpt>
      <trkpt lat="36.609970" lon="-118.807180">
        <ele>2177.755</ele>
        <time>2018-12-30T05:54:35Z</time>
      </trkpt>
      <trkpt lat="36.609900" lon="-118.807170">
        <ele>2175.744</ele>
        <time>2018-12-30T05:54:55Z</time>
      </trkpt>
      <trkpt lat="36.609870" lon="-118.807160">
        <ele>2175.046</ele>
        <time>2018-12-30T05:55:15Z</time>
      </trkpt>
      <trkpt lat="36.609810" lon="-118.807140">
        <ele>2174.488</ele>
        <time>2018-12-30T05:55:35Z</time>
      </trkpt>
      <trkpt lat="36.609750" lon="-118.807120">
        <ele>2174.016</ele>
        <time>2018-12-30T05:55:55Z</time>
      </trkpt>
      <trkpt lat="36.609450" lon="-118.806990">
        <ele>2173.208</ele>
        <time>2018-12-30T05:56:15Z</time>
      </trkpt>
      <trkpt lat="36.609290" lon="-118.806940">
        <ele>2172.267</ele>
        <time>2018-12-30T05:56:35Z</time>
      </trkpt>
      <trkpt lat="36.609200" lon="-118.806900">
        <ele>2172.265</ele>
        <time>2018-12-30T05:56:55Z</time>
      </trkpt>
      <trkpt lat="36.609070" lon="-118.806860">
        <ele>2171.930</ele>
        <time>2018-12-30T05:57:15Z</time>
      </trkpt>
      <trkpt lat="36.608930" lon="-118.806830">
        <ele>2171.120</ele>
        <time>2018-12-30T05:57:35Z</time>
      </trkpt>
      <trkpt lat="36.608590" lon="-118.806730">
        <ele>2169.534</ele>
        <time>2018-12-30T05:57:55Z</time>
      </trkpt>
      <trkpt lat="36.608300" lon="-118.806660">
        <ele>2166.574</ele>
        <time>2018-12-30T05:58:15Z</time>
      </trkpt>
      <trkpt lat="36.608260" lon="-118.806640">
        <ele>2166.480</ele>
        <time>2018-12-30T05:58:35Z</time>
      </trkpt>
      <trkpt lat="36.608210" lon="-118.806630">
        <ele>2165.629</ele>
        <time>2018-12-30T05:58:55Z</time>
      </trkpt>
      <trkpt lat="36.608160" lon="-118.806610">
        <ele>2165.328</ele>
        <time>2018-12-30T05:59:15Z</time>
      </trkpt>
      <trkpt lat="36.608100" lon="-118.806580">
        <ele>2165.189</ele>
        <time>2018-12-30T05:59:35Z</time>
      </trkpt>
      <trkpt lat="36.608040" lon="-118.806550">
        <ele>2164.817</ele>
        <time>2018-12-30T05:59:55Z</time>
      </trkpt>
      <trkpt lat="36.607970" lon="-118.806510">
        <ele>2164.308</ele>
        <time>2018-12-30T06:00:15Z</time>
      </trkpt>
      <trkpt lat="36.607910" lon="-118.806480">
        <ele>2163.435</ele>
        <time>2018-12-30T06:00:35Z</time>
      </trkpt>
      <trkpt lat="36.607860" lon="-118.806440">
        <ele>2163.313</ele>
        <time>2018-12-30T06:00:55Z</time>
      </trkpt>
      <trkpt lat="36.607790" lon="-118.806380">
        <ele>2163.268</ele>
        <time>2018-12-30T06:01:15Z</time>
      </trkpt>
      <trkpt lat="36.607720" lon="-118.806310">
        <ele>2163.478</ele>
        <time>2018-12-30T06:01:35Z</time>
      </trkpt>
      <trkpt lat="36.607620" lon="-118.806220">
        <ele>2163.152</ele>
        <time>2018-12-30T06:01:55Z</time>
      </trkpt>
      <trkpt lat="36.607450" lon="-118.806060">
        <ele>2162.242</ele>
        <time>2018-12-30T06:02:15Z</time>
      </trkpt>
      <trkpt lat="36.607370" lon="-118.806000">
        <ele>2162.498</ele>
        <time>2018-12-30T06:02:35Z</time>
      </trkpt>
      <trkpt lat="36.607270" lon="-118.805930">
        <ele>2161.747</ele>
        <time>2018-12-30T06:02:55Z</time>
      </trkpt>
      <trkpt lat="36.607170" lon="-118.805860">
        <ele>2160.222</ele>
        <time>2018-12-30T06:03:15Z</time>
      </trkpt>
      <trkpt lat="36.607080" lon="-118.805810">
        <ele>2158.362</ele>
        <time>2018-12-30T06:03:35Z</time>
      </trkpt>
      <trkpt lat="36.606990" lon="-118.805770">
        <ele>2155.208</ele>
        <time>2018-12-30T06:03:55Z</time>
      </trkpt>
      <trkpt lat="36.606920" lon="-118.805750">
        <ele>2152.808</ele>
        <time>2018-12-30T06:04:15Z</time>
      </trkpt>
      <trkpt lat="36.606860" lon="-118.805730">
        <ele>2151.045</ele>
        <time>2018-12-30T06:04:35Z</time>
      </trkpt>
      <trkpt lat="36.606790" lon="-118.805710">
        <ele>2149.893</ele>
        <time>2018-12-30T06:04:55Z</time>
      </trkpt>
      <trkpt lat="36.606730" lon="-118.805700">
        <ele>2150.488</ele>
        <time>2018-12-30T06:05:15Z</time>
      </trkpt>
      <trkpt lat="36.606670" lon="-118.805680">
        <ele>2151.468</ele>
        <time>2018-12-30T06:05:35Z</time>
      </trkpt>
      <trkpt lat="36.606630" lon="-118.805680">
        <ele>2151.672</ele>
        <time>2018-12-30T06:05:55Z</time>
      </trkpt>
      <trkpt lat="36.606570" lon="-118.805670">
        <ele>2152.212</ele>
        <time>2018-12-30T06:06:15Z</time>
      </trkpt>
      <trkpt lat="36.606500" lon="-118.805670">
        <ele>2152.388</ele>
        <time>2018-12-30T06:06:35Z</time>
      </trkpt>
      <trkpt lat="36.606360" lon="-118.805670">
        <ele>2152.717</ele>
        <time>2018-12-30T06:06:55Z</time>
      </trkpt>
      <trkpt lat="36.605760" lon="-118.805720">
        <ele>2151.199</ele>
        <time>2018-12-30T06:07:15Z</time>
      </trkpt>
      <trkpt lat="36.605680" lon="-118.805730">
        <ele>2150.707</ele>
        <time>2018-12-30T06:07:35Z</time>
      </trkpt>
      <trkpt lat="36.605580" lon="-118.805740">
        <ele>2150.027</ele>
        <time>2018-12-30T06:07:55Z</time>
      </trkpt>
      <trkpt lat="36.605510" lon="-118.805740">
        <ele>2149.708</ele>
        <time>2018-12-30T06:08:15Z</time>
      </trkpt>
      <trkpt lat="36.605440" lon="-118.805740">
        <ele>2149.532</ele>
        <time>2018-12-30T06:08:35Z</time>
      </trkpt>
      <trkpt lat="36.605380" lon="-118.805740">
        <ele>2149.140</ele>
        <time>2018-12-30T06:08:55Z</time>
      </trkpt>
      <trkpt lat="36.605330" lon="-118.805740">
        <ele>2148.765</ele>
        <time>2018-12-30T06:09:15Z</time>
      </trkpt>
      <trkpt lat="36.605270" lon="-118.805740">
        <ele>2148.295</ele>
        <time>2018-12-30T06:09:35Z</time>
      </trkpt>
      <trkpt lat="36.605230" lon="-118.805730">
        <ele>2148.289</ele>
        <time>2018-12-30T06:09:55Z</time>
      </trkpt>
      <trkpt lat="36.605190" lon="-118.805720">
        <ele>2148.239</ele>
        <time>2018-12-30T06:10:15Z</time>
      </trkpt>
      <trkpt lat="36.605140" lon="-118.805700">
        <ele>2148.465</ele>
        <time>2018-12-30T06:10:35Z</time>
      </trkpt>
      <trkpt lat="36.605110" lon="-118.805680">
        <ele>2148.524</ele>
        <time>2018-12-30T06:10:55Z</time>
      </trkpt>
      <trkpt lat="36.605080" lon="-118.805670">
        <ele>2148.112</ele>
        <time>2018-12-30T06:11:15Z</time>
      </trkpt>
      <trkpt lat="36.605050" lon="-118.805650">
        <ele>2148.032</ele>
        <time>2018-12-30T06:11:35Z</time>
      </trkpt>
      <trkpt lat="36.604990" lon="-118.805600">
        <ele>2147.705</ele>
        <time>2018-12-30T06:11:55Z</time>
      </trkpt>
      <trkpt lat="36.604940" lon="-118.805560">
        <ele>2147.208</ele>
        <time>2018-12-30T06:12:15Z</time>
      </trkpt>
      <trkpt lat="36.604900" lon="-118.805530">
        <ele>2146.674</ele>
        <time>2018-12-30T06:12:35Z</time>
      </trkpt>
      <trkpt lat="36.604860" lon="-118.805500">
        <ele>2145.872</ele>
        <time>2018-12-30T06:12:55Z</time>
      </trkpt>
      <trkpt lat="36.604820" lon="-118.805450">
        <ele>2145.677</ele>
        <time>2018-12-30T06:13:15Z</time>
      </trkpt>
      <trkpt lat="36.604790" lon="-118.805400">
        <ele>2145.317</ele>
        <time>2018-12-30T06:13:35Z</time>
      </trkpt>
      <trkpt lat="36.604760" lon="-118.805350">
        <ele>2144.631</ele>
        <time>2018-12-30T06:13:55Z</time>
      </trkpt>
      <trkpt lat="36.604730" lon="-118.805290">
        <ele>2144.011</ele>
        <time>2018-12-30T06:14:15Z</time>
      </trkpt>
      <trkpt lat="36.604710" lon="-118.805260">
        <ele>2143.657</ele>
        <time>2018-12-30T06:14:35Z</time>
      </trkpt>
      <trkpt lat="36.604690" lon="-118.805220">
        <ele>2143.366</ele>
        <time>2018-12-30T06:14:55Z</time>
      </trkpt>
      <trkpt lat="36.604670" lon="-118.805150">
        <ele>2143.152</ele>
        <time>2018-12-30T06:15:15Z</time>
      </trkpt>
      <trkpt lat="36.604650" lon="-118.805090">
        <ele>2142.953</ele>
        <time>2018-12-30T06:15:35Z</time>
      </trkpt>
      <trkpt lat="36.604630" lon="-118.805030">
        <ele>2142.708</ele>
        <time>2018-12-30T06:15:55Z</time>
      </trkpt>
      <trkpt lat="36.604620" lon="-118.804970">
        <ele>2142.608</ele>
        <time>2018-12-30T06:16:15Z</time>
      </trkpt>
      <trkpt lat="36.604610" lon="-118.804920">
        <ele>2142.488</ele>
        <time>2018-12-30T06:16:35Z</time>
      </trkpt>
      <trkpt lat="36.604600" lon="-118.804870">
        <ele>2142.256</ele>
        <time>2018-12-30T06:16:55Z</time>
      </trkpt>
      <trkpt lat="36.604600" lon="-118.804830">
        <ele>2142.181</ele>
        <time>2018-12-30T06:17:15Z</time>
      </trkpt>
      <trkpt lat="36.604590" lon="-118.804780">
        <ele>2141.671</ele>
        <time>2018-12-30T06:17:35Z</time>
      </trkpt>
      <trkpt lat="36.604590" lon="-118.804720">
        <ele>2141.335</ele>
        <time>2018-12-30T06:17:55Z</time>
      </trkpt>
      <trkpt lat="36.604600" lon="-118.804660">
        <ele>2141.445</ele>
        <time>2018-12-30T06:18:15Z</time>
      </trkpt>
      <trkpt lat="36.604600" lon="-118.804610">
        <ele>2141.141</ele>
        <time>2018-12-30T06:18:35Z</time>
      </trkpt>
      <trkpt lat="36.604610" lon="-118.804550">
        <ele>2141.160</ele>
        <time>2018-12-30T06:18:55Z</time>
      </trkpt>
      <trkpt lat="36.604620" lon="-118.804470">
        <ele>2140.884</ele>
        <time>2018-12-30T06:19:15Z</time>
      </trkpt>
      <trkpt lat="36.604640" lon="-118.804400">
        <ele>2140.907</ele>
        <time>2018-12-30T06:19:35Z</time>
      </trkpt>
      <trkpt lat="36.604670" lon="-118.804320">
        <ele>2141.317</ele>
        <time>2018-12-30T06:19:55Z</time>
      </trkpt>
      <trkpt lat="36.604800" lon="-118.804010">
        <ele>2141.708</ele>
        <time>2018-12-30T06:20:15Z</time>
      </trkpt>
      <trkpt lat="36.604910" lon="-118.803770">
        <ele>2141.251</ele>
        <time>2018-12-30T06:20:35Z</time>
      </trkpt>
      <trkpt lat="36.604960" lon="-118.803620">
        <ele>2139.999</ele>
        <time>2018-12-30T06:20:55Z</time>
      </trkpt>
      <trkpt lat="36.604970" lon="-118.803580">
        <ele>2139.434</ele>
        <time>2018-12-30T06:21:15Z</time>
      </trkpt>
      <trkpt lat="36.604990" lon="-118.803530">
        <ele>2139.064</ele>
        <time>2018-12-30T06:21:35Z</time>
      </trkpt>
      <trkpt lat="36.605000" lon="-118.803460">
        <ele>2138.028</ele>
        <time>2018-12-30T06:21:55Z</time>
      </trkpt>
      <trkpt lat="36.605010" lon="-118.803400">
        <ele>2137.878</ele>
        <time>2018-12-30T06:22:15Z</time>
      </trkpt>
      <trkpt lat="36.605020" lon="-118.803330">
        <ele>2137.434</ele>
        <time>2018-12-30T06:22:35Z</time>
      </trkpt>
      <trkpt lat="36.605030" lon="-118.803270">
        <ele>2137.143</ele>
        <time>2018-12-30T06:22:55Z</time>
      </trkpt>
      <trkpt lat="36.605040" lon="-118.803210">
        <ele>2136.842</ele>
        <time>2018-12-30T06:23:15Z</time>
      </trkpt>
      <trkpt lat="36.605040" lon="-118.803130">
        <ele>2135.922</ele>
        <time>2018-12-30T06:23:35Z</time>
      </trkpt>
      <trkpt lat="36.605040" lon="-118.803070">
        <ele>2135.314</ele>
        <time>2018-12-30T06:23:55Z</time>
      </trkpt>
      <trkpt lat="36.605040" lon="-118.803010">
        <ele>2134.608</ele>
        <time>2018-12-30T06:24:15Z</time>
      </trkpt>
      <trkpt lat="36.605030" lon="-118.802940">
        <ele>2133.677</ele>
        <time>2018-12-30T06:24:35Z</time>
      </trkpt>
      <trkpt lat="36.605020" lon="-118.802860">
        <ele>2132.945</ele>
        <time>2018-12-30T06:24:55Z</time>
      </trkpt>
      <trkpt lat="36.605010" lon="-118.802800">
        <ele>2132.570</ele>
        <time>2018-12-30T06:25:15Z</time>
      </trkpt>
      <trkpt lat="36.605000" lon="-118.802740">
        <ele>2132.030</ele>
        <time>2018-12-30T06:25:35Z</time>
      </trkpt>
      <trkpt lat="36.604990" lon="-118.802690">
        <ele>2131.644</ele>
        <time>2018-12-30T06:25:55Z</time>
      </trkpt>
      <trkpt lat="36.604930" lon="-118.802440">
        <ele>2129.894</ele>
        <time>2018-12-30T06:26:15Z</time>
      </trkpt>
      <trkpt lat="36.604920" lon="-118.802370">
        <ele>2129.610</ele>
        <time>2018-12-30T06:26:35Z</time>
      </trkpt>
      <trkpt lat="36.604910" lon="-118.802310">
        <ele>2129.379</ele>
        <time>2018-12-30T06:26:55Z</time>
      </trkpt>
      <trkpt lat="36.604890" lon="-118.802240">
        <ele>2128.923</ele>
        <time>2018-12-30T06:27:15Z</time>
      </trkpt>
      <trkpt lat="36.604890" lon="-118.802180">
        <ele>2128.983</ele>
        <time>2018-12-30T06:27:35Z</time>
      </trkpt>
      <trkpt lat="36.604880" lon="-118.802140">
        <ele>2128.711</ele>
        <time>2018-12-30T06:27:55Z</time>
      </trkpt>
      <trkpt lat="36.604880" lon="-118.802100">
        <ele>2128.708</ele>
        <time>2018-12-30T06:28:15Z</time>
      </trkpt>
      <trkpt lat="36.604880" lon="-118.802060">
        <ele>2128.715</ele>
        <time>2018-12-30T06:28:35Z</time>
      </trkpt>
      <trkpt lat="36.604880" lon="-118.802000">
        <ele>2128.843</ele>
        <time>2018-12-30T06:28:55Z</time>
      </trkpt>
      <trkpt lat="36.604880" lon="-118.801960">
        <ele>2128.878</ele>
        <time>2018-12-30T06:29:15Z</time>
      </trkpt>
      <trkpt lat="36.604890" lon="-118.801900">
        <ele>2129.148</ele>
        <time>2018-12-30T06:29:35Z</time>
      </trkpt>
      <trkpt lat="36.604900" lon="-118.801830">
        <ele>2129.332</ele>
        <time>2018-12-30T06:29:55Z</time>
      </trkpt>
      <trkpt lat="36.604910" lon="-118.801750">
        <ele>2129.592</ele>
        <time>2018-12-30T06:30:15Z</time>
      </trkpt>
      <trkpt lat="36.604930" lon="-118.801680">
        <ele>2129.878</ele>
        <time>2018-12-30T06:30:35Z</time>
      </trkpt>
      <trkpt lat="36.604950" lon="-118.801610">
        <ele>2130.077</ele>
        <time>2018-12-30T06:30:55Z</time>
      </trkpt>
      <trkpt lat="36.604960" lon="-118.801560">
        <ele>2130.166</ele>
        <time>2018-12-30T06:31:15Z</time>
      </trkpt>
      <trkpt lat="36.605000" lon="-118.801470">
        <ele>2130.429</ele>
        <time>2018-12-30T06:31:35Z</time>
      </trkpt>
      <trkpt lat="36.605030" lon="-118.801390">
        <ele>2130.521</ele>
        <time>2018-12-30T06:31:55Z</time>
      </trkpt>
      <trkpt lat="36.605070" lon="-118.801320">
        <ele>2130.708</ele>
        <time>2018-12-30T06:32:15Z</time>
      </trkpt>
      <trkpt lat="36.605110" lon="-118.801260">
        <ele>2131.099</ele>
        <time>2018-12-30T06:32:35Z</time>
      </trkpt>
      <trkpt lat="36.605130" lon="-118.801220">
        <ele>2130.687</ele>
        <time>2018-12-30T06:32:55Z</time>
      </trkpt>
      <trkpt lat="36.605180" lon="-118.801170">
        <ele>2130.422</ele>
        <time>2018-12-30T06:33:15Z</time>
      </trkpt>
      <trkpt lat="36.605250" lon="-118.801100">
        <ele>2130.192</ele>
        <time>2018-12-30T06:33:35Z</time>
      </trkpt>
      <trkpt lat="36.605310" lon="-118.801030">
        <ele>2129.616</ele>
        <time>2018-12-30T06:33:55Z</time>
      </trkpt>
      <trkpt lat="36.605370" lon="-118.800990">
        <ele>2129.646</ele>
        <time>2018-12-30T06:34:15Z</time>
      </trkpt>
      <trkpt lat="36.605410" lon="-118.800960">
        <ele>2129.592</ele>
        <time>2018-12-30T06:34:35Z</time>
      </trkpt>
      <trkpt lat="36.605450" lon="-118.800930">
        <ele>2129.131</ele>
        <time>2018-12-30T06:34:55Z</time>
      </trkpt>
      <trkpt lat="36.605510" lon="-118.800910">
        <ele>2128.942</ele>
        <time>2018-12-30T06:35:15Z</time>
      </trkpt>
      <trkpt lat="36.605580" lon="-118.800880">
        <ele>2128.522</ele>
        <time>2018-12-30T06:35:35Z</time>
      </trkpt>
      <trkpt lat="36.605670" lon="-118.800850">
        <ele>2128.114</ele>
        <time>2018-12-30T06:35:55Z</time>
      </trkpt>
      <trkpt lat="36.605750" lon="-118.800820">
        <ele>2127.108</ele>
        <time>2018-12-30T06:36:15Z</time>
      </trkpt>
      <trkpt lat="36.605840" lon="-118.800800">
        <ele>2126.097</ele>
        <time>2018-12-30T06:36:35Z</time>
      </trkpt>
      <trkpt lat="36.605920" lon="-118.800780">
        <ele>2124.935</ele>
        <time>2018-12-30T06:36:55Z</time>
      </trkpt>
      <trkpt lat="36.605950" lon="-118.800760">
        <ele>2124.060</ele>
        <time>2018-12-30T06:37:15Z</time>
      </trkpt>
      <trkpt lat="36.605990" lon="-118.800750">
        <ele>2123.610</ele>
        <time>2018-12-30T06:37:35Z</time>
      </trkpt>
      <trkpt lat="36.606030" lon="-118.800730">
        <ele>2123.084</ele>
        <time>2018-12-30T06:37:55Z</time>
      </trkpt>
      <trkpt lat="36.606080" lon="-118.800700">
        <ele>2122.274</ele>
        <time>2018-12-30T06:38:15Z</time>
      </trkpt>
      <trkpt lat="36.606110" lon="-118.800670">
        <ele>2121.850</ele>
        <time>2018-12-30T06:38:35Z</time>
      </trkpt>
      <trkpt lat="36.606150" lon="-118.800650">
        <ele>2121.739</ele>
        <time>2018-12-30T06:38:55Z</time>
      </trkpt>
      <trkpt lat="36.606200" lon="-118.800600">
        <ele>2121.329</ele>
        <time>2018-12-30T06:39:15Z</time>
      </trkpt>
      <trkpt lat="36.606230" lon="-118.800570">
        <ele>2121.000</ele>
        <time>2018-12-30T06:39:35Z</time>
      </trkpt>
      <trkpt lat="36.606270" lon="-118.800520">
        <ele>2120.520</ele>
        <time>2018-12-30T06:39:55Z</time>
      </trkpt>
      <trkpt lat="36.606290" lon="-118.800490">
        <ele>2120.308</ele>
        <time>2018-12-30T06:40:15Z</time>
      </trkpt>
      <trkpt lat="36.606320" lon="-118.800450">
        <ele>2120.095</ele>
        <time>2018-12-30T06:40:35Z</time>
      </trkpt>
      <trkpt lat="36.606340" lon="-118.800410">
        <ele>2119.733</ele>
        <time>2018-12-30T06:40:55Z</time>
      </trkpt>
      <trkpt lat="36.606360" lon="-118.800370">
        <ele>2119.518</ele>
        <time>2018-12-30T06:41:15Z</time>
      </trkpt>
      <trkpt lat="36.606400" lon="-118.800270">
        <ele>2119.168</ele>
        <time>2018-12-30T06:41:35Z</time>
      </trkpt>
      <trkpt lat="36.606430" lon="-118.800200">
        <ele>2118.932</ele>
        <time>2018-12-30T06:41:55Z</time>
      </trkpt>
      <trkpt lat="36.606450" lon="-118.800120">
        <ele>2118.652</ele>
        <time>2018-12-30T06:42:15Z</time>
      </trkpt>
      <trkpt lat="36.606550" lon="-118.799840">
        <ele>2118.328</ele>
        <time>2018-12-30T06:42:35Z</time>
      </trkpt>
      <trkpt lat="36.606560" lon="-118.799800">
        <ele>2118.237</ele>
        <time>2018-12-30T06:42:55Z</time>
      </trkpt>
      <trkpt lat="36.606580" lon="-118.799750">
        <ele>2118.143</ele>
        <time>2018-12-30T06:43:15Z</time>
      </trkpt>
      <trkpt lat="36.606610" lon="-118.799700">
        <ele>2118.164</ele>
        <time>2018-12-30T06:43:35Z</time>
      </trkpt>
      <trkpt lat="36.606640" lon="-118.799620">
        <ele>2117.810</ele>
        <time>2018-12-30T06:43:55Z</time>
      </trkpt>
      <trkpt lat="36.606680" lon="-118.799550">
        <ele>2117.608</ele>
        <time>2018-12-30T06:44:15Z</time>
      </trkpt>
      <trkpt lat="36.606740" lon="-118.799480">
        <ele>2117.557</ele>
        <time>2018-12-30T06:44:35Z</time>
      </trkpt>
      <trkpt lat="36.606800" lon="-118.799400">
        <ele>2117.065</ele>
        <time>2018-12-30T06:44:55Z</time>
      </trkpt>
      <trkpt lat="36.606830" lon="-118.799370">
        <ele>2116.980</ele>
        <time>2018-12-30T06:45:15Z</time>
      </trkpt>
      <trkpt lat="36.606870" lon="-118.799320">
        <ele>2116.530</ele>
        <time>2018-12-30T06:45:35Z</time>
      </trkpt>
      <trkpt lat="36.606920" lon="-118.799280">
        <ele>2116.494</ele>
        <time>2018-12-30T06:45:55Z</time>
      </trkpt>
      <trkpt lat="36.606970" lon="-118.799240">
        <ele>2116.164</ele>
        <time>2018-12-30T06:46:15Z</time>
      </trkpt>
      <trkpt lat="36.607010" lon="-118.799220">
        <ele>2116.140</ele>
        <time>2018-12-30T06:46:35Z</time>
      </trkpt>
      <trkpt lat="36.607070" lon="-118.799180">
        <ele>2115.739</ele>
        <time>2018-12-30T06:46:55Z</time>
      </trkpt>
      <trkpt lat="36.607130" lon="-118.799150">
        <ele>2115.173</ele>
        <time>2018-12-30T06:47:15Z</time>
      </trkpt>
      <trkpt lat="36.607190" lon="-118.799120">
        <ele>2114.185</ele>
        <time>2018-12-30T06:47:35Z</time>
      </trkpt>
      <trkpt lat="36.607750" lon="-118.798840">
        <ele>2108.813</ele>
        <time>2018-12-30T06:47:55Z</time>
      </trkpt>
      <trkpt lat="36.608000" lon="-118.798720">
        <ele>2107.608</ele>
        <time>2018-12-30T06:48:15Z</time>
      </trkpt>
      <trkpt lat="36.608060" lon="-118.798690">
        <ele>2107.520</ele>
        <time>2018-12-30T06:48:35Z</time>
      </trkpt>
      <trkpt lat="36.608140" lon="-118.798650">
        <ele>2107.338</ele>
        <time>2018-12-30T06:48:55Z</time>
      </trkpt>
      <trkpt lat="36.608180" lon="-118.798630">
        <ele>2107.273</ele>
        <time>2018-12-30T06:49:15Z</time>
      </trkpt>
      <trkpt lat="36.608210" lon="-118.798610">
        <ele>2107.143</ele>
        <time>2018-12-30T06:49:35Z</time>
      </trkpt>
      <trkpt lat="36.608250" lon="-118.798580">
        <ele>2106.857</ele>
        <time>2018-12-30T06:49:55Z</time>
      </trkpt>
      <trkpt lat="36.608280" lon="-118.798550">
        <ele>2106.497</ele>
        <time>2018-12-30T06:50:15Z</time>
      </trkpt>
      <trkpt lat="36.608310" lon="-118.798520">
        <ele>2105.953</ele>
        <time>2018-12-30T06:50:35Z</time>
      </trkpt>
      <trkpt lat="36.608340" lon="-118.798490">
        <ele>2105.452</ele>
        <time>2018-12-30T06:50:55Z</time>
      </trkpt>
      <trkpt lat="36.608360" lon="-118.798460">
        <ele>2104.871</ele>
        <time>2018-12-30T06:51:15Z</time>
      </trkpt>
      <trkpt lat="36.608390" lon="-118.798420">
        <ele>2104.241</ele>
        <time>2018-12-30T06:51:35Z</time>
      </trkpt>
      <trkpt lat="36.608410" lon="-118.798390">
        <ele>2103.815</ele>
        <time>2018-12-30T06:51:55Z</time>
      </trkpt>
      <trkpt lat="36.608420" lon="-118.798360">
        <ele>2103.308</ele>
        <time>2018-12-30T06:52:15Z</time>
      </trkpt>
      <trkpt lat="36.608440" lon="-118.798310">
        <ele>2102.560</ele>
        <time>2018-12-30T06:52:35Z</time>
      </trkpt>
      <trkpt lat="36.608460" lon="-118.798270">
        <ele>2101.928</ele>
        <time>2018-12-30T06:52:55Z</time>
      </trkpt>
      <trkpt lat="36.608470" lon="-118.798220">
        <ele>2101.083</ele>
        <time>2018-12-30T06:53:15Z</time>
      </trkpt>
      <trkpt lat="36.608490" lon="-118.798170">
        <ele>2100.363</ele>
        <time>2018-12-30T06:53:35Z</time>
      </trkpt>
      <trkpt lat="36.608500" lon="-118.798110">
        <ele>2100.087</ele>
        <time>2018-12-30T06:53:55Z</time>
      </trkpt>
      <trkpt lat="36.608510" lon="-118.798070">
        <ele>2099.717</ele>
        <time>2018-12-30T06:54:15Z</time>
      </trkpt>
      <trkpt lat="36.608510" lon="-118.798030">
        <ele>2099.553</ele>
        <time>2018-12-30T06:54:35Z</time>
      </trkpt>
      <trkpt lat="36.608510" lon="-118.797980">
        <ele>2099.212</ele>
        <time>2018-12-30T06:54:55Z</time>
      </trkpt>
      <trkpt lat="36.608510" lon="-118.797910">
        <ele>2098.988</ele>
        <time>2018-12-30T06:55:15Z</time>
      </trkpt>
      <trkpt lat="36.608510" lon="-118.797880">
        <ele>2099.024</ele>
        <time>2018-12-30T06:55:35Z</time>
      </trkpt>
      <trkpt lat="36.608510" lon="-118.797830">
        <ele>2099.226</ele>
        <time>2018-12-30T06:55:55Z</time>
      </trkpt>
      <trkpt lat="36.608490" lon="-118.797770">
        <ele>2099.708</ele>
        <time>2018-12-30T06:56:15Z</time>
      </trkpt>
      <trkpt lat="36.608480" lon="-118.797730">
        <ele>2099.921</ele>
        <time>2018-12-30T06:56:35Z</time>
      </trkpt>
      <trkpt lat="36.608480" lon="-118.797690">
        <ele>2100.159</ele>
        <time>2018-12-30T06:56:55Z</time>
      </trkpt>
      <trkpt lat="36.608460" lon="-118.797650">
        <ele>2099.664</ele>
        <time>2018-12-30T06:57:15Z</time>
      </trkpt>
      <trkpt lat="36.608440" lon="-118.797600">
        <ele>2099.034</ele>
        <time>2018-12-30T06:57:35Z</time>
      </trkpt>
      <trkpt lat="36.608420" lon="-118.797550">
        <ele>2098.928</ele>
        <time>2018-12-30T06:57:55Z</time>
      </trkpt>
      <trkpt lat="36.608400" lon="-118.797500">
        <ele>2099.088</ele>
        <time>2018-12-30T06:58:15Z</time>
      </trkpt>
      <trkpt lat="36.608370" lon="-118.797450">
        <ele>2099.214</ele>
        <time>2018-12-30T06:58:35Z</time>
      </trkpt>
      <trkpt lat="36.608330" lon="-118.797400">
        <ele>2099.533</ele>
        <time>2018-12-30T06:58:55Z</time>
      </trkpt>
      <trkpt lat="36.608300" lon="-118.797370">
        <ele>2099.924</ele>
        <time>2018-12-30T06:59:15Z</time>
      </trkpt>
      <trkpt lat="36.608270" lon="-118.797350">
        <ele>2099.904</ele>
        <time>2018-12-30T06:59:35Z</time>
      </trkpt>
      <trkpt lat="36.608240" lon="-118.797320">
        <ele>2100.114</ele>
        <time>2018-12-30T06:59:55Z</time>
      </trkpt>
      <trkpt lat="36.608200" lon="-118.797290">
        <ele>2100.108</ele>
        <time>2018-12-30T07:00:15Z</time>
      </trkpt>
      <trkpt lat="36.608160" lon="-118.797260">
        <ele>2099.675</ele>
        <time>2018-12-30T07:00:35Z</time>
      </trkpt>
      <trkpt lat="36.608090" lon="-118.797220">
        <ele>2098.843</ele>
        <time>2018-12-30T07:00:55Z</time>
      </trkpt>
      <trkpt lat="36.607240" lon="-118.796780">
        <ele>2104.068</ele>
        <time>2018-12-30T07:01:15Z</time>
      </trkpt>
      <trkpt lat="36.606150" lon="-118.796210">
        <ele>2112.178</ele>
        <time>2018-12-30T07:01:35Z</time>
      </trkpt>
      <trkpt lat="36.605800" lon="-118.796030">
        <ele>2113.692</ele>
        <time>2018-12-30T07:01:55Z</time>
      </trkpt>
      <trkpt lat="36.605710" lon="-118.795980">
        <ele>2114.772</ele>
        <time>2018-12-30T07:02:15Z</time>
      </trkpt>
      <trkpt lat="36.605610" lon="-118.795920">
        <ele>2115.758</ele>
        <time>2018-12-30T07:02:35Z</time>
      </trkpt>
      <trkpt lat="36.605580" lon="-118.795910">
        <ele>2115.857</ele>
        <time>2018-12-30T07:02:55Z</time>
      </trkpt>
      <trkpt lat="36.605550" lon="-118.795890">
        <ele>2116.382</ele>
        <time>2018-12-30T07:03:15Z</time>
      </trkpt>
      <trkpt lat="36.605510" lon="-118.795850">
        <ele>2117.643</ele>
        <time>2018-12-30T07:03:35Z</time>
      </trkpt>
      <trkpt lat="36.605470" lon="-118.795820">
        <ele>2118.617</ele>
        <time>2018-12-30T07:03:55Z</time>
      </trkpt>
      <trkpt lat="36.605440" lon="-118.795790">
        <ele>2119.808</ele>
        <time>2018-12-30T07:04:15Z</time>
      </trkpt>
      <trkpt lat="36.605410" lon="-118.795760">
        <ele>2120.991</ele>
        <time>2018-12-30T07:04:35Z</time>
      </trkpt>
      <trkpt lat="36.605360" lon="-118.795690">
        <ele>2122.719</ele>
        <time>2018-12-30T07:04:55Z</time>
      </trkpt>
      <trkpt lat="36.605320" lon="-118.795630">
        <ele>2122.934</ele>
        <time>2018-12-30T07:05:15Z</time>
      </trkpt>
      <trkpt lat="36.605280" lon="-118.795570">
        <ele>2123.244</ele>
        <time>2018-12-30T07:05:35Z</time>
      </trkpt>
      <trkpt lat="36.605260" lon="-118.795520">
        <ele>2123.978</ele>
        <time>2018-12-30T07:05:55Z</time>
      </trkpt>
      <trkpt lat="36.605240" lon="-118.795460">
        <ele>2124.888</ele>
        <time>2018-12-30T07:06:15Z</time>
      </trkpt>
      <trkpt lat="36.605220" lon="-118.795410">
        <ele>2125.564</ele>
        <time>2018-12-30T07:06:35Z</time>
      </trkpt>
      <trkpt lat="36.605190" lon="-118.795320">
        <ele>2125.883</ele>
        <time>2018-12-30T07:06:55Z</time>
      </trkpt>
      <trkpt lat="36.605180" lon="-118.795270">
        <ele>2126.287</ele>
        <time>2018-12-30T07:07:15Z</time>
      </trkpt>
      <trkpt lat="36.605170" lon="-118.795220">
        <ele>2126.542</ele>
        <time>2018-12-30T07:07:35Z</time>
      </trkpt>
      <trkpt lat="36.605160" lon="-118.795130">
        <ele>2127.226</ele>
        <time>2018-12-30T07:07:55Z</time>
      </trkpt>
      <trkpt lat="36.605160" lon="-118.795020">
        <ele>2127.508</ele>
        <time>2018-12-30T07:08:15Z</time>
      </trkpt>
      <trkpt lat="36.605160" lon="-118.794940">
        <ele>2127.721</ele>
        <time>2018-12-30T07:08:35Z</time>
      </trkpt>
      <trkpt lat="36.605170" lon="-118.794870">
        <ele>2128.289</ele>
        <time>2018-12-30T07:08:55Z</time>
      </trkpt>
      <trkpt lat="36.605180" lon="-118.794800">
        <ele>2128.264</ele>
        <time>2018-12-30T07:09:15Z</time>
      </trkpt>
      <trkpt lat="36.605190" lon="-118.794750">
        <ele>2128.244</ele>
        <time>2018-12-30T07:09:35Z</time>
      </trkpt>
      <trkpt lat="36.605200" lon="-118.794700">
        <ele>2128.218</ele>
        <time>2018-12-30T07:09:55Z</time>
      </trkpt>
      <trkpt lat="36.605230" lon="-118.794630">
        <ele>2128.858</ele>
        <time>2018-12-30T07:10:15Z</time>
      </trkpt>
      <trkpt lat="36.605250" lon="-118.794580">
        <ele>2129.274</ele>
        <time>2018-12-30T07:10:35Z</time>
      </trkpt>
      <trkpt lat="36.605270" lon="-118.794530">
        <ele>2129.263</ele>
        <time>2018-12-30T07:10:55Z</time>
      </trkpt>
      <trkpt lat="36.605300" lon="-118.794480">
        <ele>2129.558</ele>
        <time>2018-12-30T07:11:15Z</time>
      </trkpt>
      <trkpt lat="36.605330" lon="-118.794430">
        <ele>2129.852</ele>
        <time>2018-12-30T07:11:35Z</time>
      </trkpt>
      <trkpt lat="36.605350" lon="-118.794400">
        <ele>2130.117</ele>
        <time>2018-12-30T07:11:55Z</time>
      </trkpt>
      <trkpt lat="36.605370" lon="-118.794360">
        <ele>2130.208</ele>
        <time>2018-12-30T07:12:15Z</time>
      </trkpt>
      <trkpt lat="36.605400" lon="-118.794320">
        <ele>2130.698</ele>
        <time>2018-12-30T07:12:35Z</time>
      </trkpt>
      <trkpt lat="36.605430" lon="-118.794280">
        <ele>2130.946</ele>
        <time>2018-12-30T07:12:55Z</time>
      </trkpt>
      <trkpt lat="36.605710" lon="-118.793950">
        <ele>2131.971</ele>
        <time>2018-12-30T07:13:15Z</time>
      </trkpt>
      <trkpt lat="36.606170" lon="-118.793370">
        <ele>2128.841</ele>
        <time>2018-12-30T07:13:35Z</time>
      </trkpt>
      <trkpt lat="36.606430" lon="-118.793060">
        <ele>2130.225</ele>
        <time>2018-12-30T07:13:55Z</time>
      </trkpt>
      <trkpt lat="36.606470" lon="-118.793020">
        <ele>2130.685</ele>
        <time>2018-12-30T07:14:15Z</time>
      </trkpt>
      <trkpt lat="36.606500" lon="-118.792980">
        <ele>2130.571</ele>
        <time>2018-12-30T07:14:35Z</time>
      </trkpt>
      <trkpt lat="36.606530" lon="-118.792950">
        <ele>2130.790</ele>
        <time>2018-12-30T07:14:55Z</time>
      </trkpt>
      <trkpt lat="36.606560" lon="-118.792920">
        <ele>2130.758</ele>
        <time>2018-12-30T07:15:15Z</time>
      </trkpt>
      <trkpt lat="36.606600" lon="-118.792890">
        <ele>2130.952</ele>
        <time>2018-12-30T07:15:35Z</time>
      </trkpt>
      <trkpt lat="36.606660" lon="-118.792840">
        <ele>2131.217</ele>
        <time>2018-12-30T07:15:55Z</time>
      </trkpt>
      <trkpt lat="36.606710" lon="-118.792800">
        <ele>2131.308</ele>
        <time>2018-12-30T07:16:15Z</time>
      </trkpt>
      <trkpt lat="36.606750" lon="-118.792770">
        <ele>2131.468</ele>
        <time>2018-12-30T07:16:35Z</time>
      </trkpt>
      <trkpt lat="36.606790" lon="-118.792750">
        <ele>2131.776</ele>
        <time>2018-12-30T07:16:55Z</time>
      </trkpt>
      <trkpt lat="36.606820" lon="-118.792720">
        <ele>2131.651</ele>
        <time>2018-12-30T07:17:15Z</time>
      </trkpt>
      <trkpt lat="36.606860" lon="-118.792700">
        <ele>2131.961</ele>
        <time>2018-12-30T07:17:35Z</time>
      </trkpt>
      <trkpt lat="36.606910" lon="-118.792670">
        <ele>2131.885</ele>
        <time>2018-12-30T07:17:55Z</time>
      </trkpt>
      <trkpt lat="36.606950" lon="-118.792650">
        <ele>2131.675</ele>
        <time>2018-12-30T07:18:15Z</time>
      </trkpt>
      <trkpt lat="36.606980" lon="-118.792640">
        <ele>2131.641</ele>
        <time>2018-12-30T07:18:35Z</time>
      </trkpt>
      <trkpt lat="36.607010" lon="-118.792630">
        <ele>2131.860</ele>
        <time>2018-12-30T07:18:55Z</time>
      </trkpt>
      <trkpt lat="36.607080" lon="-118.792600">
        <ele>2132.083</ele>
        <time>2018-12-30T07:19:15Z</time>
      </trkpt>
      <trkpt lat="36.607130" lon="-118.792590">
        <ele>2132.825</ele>
        <time>2018-12-30T07:19:35Z</time>
      </trkpt>
      <trkpt lat="36.607240" lon="-118.792550">
        <ele>2134.117</ele>
        <time>2018-12-30T07:19:55Z</time>
      </trkpt>
      <trkpt lat="36.607450" lon="-118.792500">
        <ele>2136.308</ele>
        <time>2018-12-30T07:20:15Z</time>
      </trkpt>
      <trkpt lat="36.608270" lon="-118.792270">
        <ele>2137.661</ele>
        <time>2018-12-30T07:20:35Z</time>
      </trkpt>
      <trkpt lat="36.608510" lon="-118.792210">
        <ele>2141.059</ele>
        <time>2018-12-30T07:20:55Z</time>
      </trkpt>
      <trkpt lat="36.608710" lon="-118.792160">
        <ele>2143.354</ele>
        <time>2018-12-30T07:21:15Z</time>
      </trkpt>
      <trkpt lat="36.608820" lon="-118.792130">
        <ele>2143.854</ele>
        <time>2018-12-30T07:21:35Z</time>
      </trkpt>
      <trkpt lat="36.608950" lon="-118.792090">
        <ele>2143.748</ele>
        <time>2018-12-30T07:21:55Z</time>
      </trkpt>
      <trkpt lat="36.609360" lon="-118.791970">
        <ele>2142.668</ele>
        <time>2018-12-30T07:22:15Z</time>
      </trkpt>
      <trkpt lat="36.609850" lon="-118.791840">
        <ele>2144.114</ele>
        <time>2018-12-30T07:22:35Z</time>
      </trkpt>
      <trkpt lat="36.610060" lon="-118.791780">
        <ele>2143.623</ele>
        <time>2018-12-30T07:22:55Z</time>
      </trkpt>
      <trkpt lat="36.610130" lon="-118.791750">
        <ele>2143.331</ele>
        <time>2018-12-30T07:23:15Z</time>
      </trkpt>
      <trkpt lat="36.610200" lon="-118.791730">
        <ele>2143.161</ele>
        <time>2018-12-30T07:23:35Z</time>
      </trkpt>
      <trkpt lat="36.610260" lon="-118.791710">
        <ele>2142.807</ele>
        <time>2018-12-30T07:23:55Z</time>
      </trkpt>
      <trkpt lat="36.610330" lon="-118.791680">
        <ele>2142.408</ele>
        <time>2018-12-30T07:24:15Z</time>
      </trkpt>
      <trkpt lat="36.610380" lon="-118.791660">
        <ele>2142.216</ele>
        <time>2018-12-30T07:24:35Z</time>
      </trkpt>
      <trkpt lat="36.610430" lon="-118.791640">
        <ele>2142.024</ele>
        <time>2018-12-30T07:24:55Z</time>
      </trkpt>
      <trkpt lat="36.610460" lon="-118.791620">
        <ele>2141.899</ele>
        <time>2018-12-30T07:25:15Z</time>
      </trkpt>
      <trkpt lat="36.610510" lon="-118.791590">
        <ele>2141.769</ele>
        <time>2018-12-30T07:25:35Z</time>
      </trkpt>
      <trkpt lat="36.610550" lon="-118.791570">
        <ele>2141.753</ele>
        <time>2018-12-30T07:25:55Z</time>
      </trkpt>
      <trkpt lat="36.610610" lon="-118.791530">
        <ele>2141.663</ele>
        <time>2018-12-30T07:26:15Z</time>
      </trkpt>
      <trkpt lat="36.610680" lon="-118.791480">
        <ele>2141.449</ele>
        <time>2018-12-30T07:26:35Z</time>
      </trkpt>
      <trkpt lat="36.610730" lon="-118.791450">
        <ele>2141.518</ele>
        <time>2018-12-30T07:26:55Z</time>
      </trkpt>
      <trkpt lat="36.610770" lon="-118.791410">
        <ele>2141.498</ele>
        <time>2018-12-30T07:27:15Z</time>
      </trkpt>
      <trkpt lat="36.610830" lon="-118.791360">
        <ele>2141.315</ele>
        <time>2018-12-30T07:27:35Z</time>
      </trkpt>
      <trkpt lat="36.610860" lon="-118.791320">
        <ele>2141.026</ele>
        <time>2018-12-30T07:27:55Z</time>
      </trkpt>
      <trkpt lat="36.610900" lon="-118.791290">
        <ele>2141.008</ele>
        <time>2018-12-30T07:28:15Z</time>
      </trkpt>
      <trkpt lat="36.610950" lon="-118.791240">
        <ele>2140.892</ele>
        <time>2018-12-30T07:28:35Z</time>
      </trkpt>
      <trkpt lat="36.610980" lon="-118.791200">
        <ele>2140.570</ele>
        <time>2018-12-30T07:28:55Z</time>
      </trkpt>
      <trkpt lat="36.611020" lon="-118.791140">
        <ele>2140.065</ele>
        <time>2018-12-30T07:29:15Z</time>
      </trkpt>
      <trkpt lat="36.611050" lon="-118.791090">
        <ele>2139.775</ele>
        <time>2018-12-30T07:29:35Z</time>
      </trkpt>
      <trkpt lat="36.611090" lon="-118.791020">
        <ele>2139.249</ele>
        <time>2018-12-30T07:29:55Z</time>
      </trkpt>
      <trkpt lat="36.611120" lon="-118.790980">
        <ele>2139.159</ele>
        <time>2018-12-30T07:30:15Z</time>
      </trkpt>
      <trkpt lat="36.611160" lon="-118.790910">
        <ele>2139.375</ele>
        <time>2018-12-30T07:30:35Z</time>
      </trkpt>
      <trkpt lat="36.611190" lon="-118.790850">
        <ele>2139.544</ele>
        <time>2018-12-30T07:30:55Z</time>
      </trkpt>
      <trkpt lat="36.611230" lon="-118.790770">
        <ele>2139.822</ele>
        <time>2018-12-30T07:31:15Z</time>
      </trkpt>
      <trkpt lat="36.611300" lon="-118.790610">
        <ele>2140.962</ele>
        <time>2018-12-30T07:31:35Z</time>
      </trkpt>
      <trkpt lat="36.611350" lon="-118.790490">
        <ele>2142.008</ele>
        <time>2018-12-30T07:31:55Z</time>
      </trkpt>
      <trkpt lat="36.611400" lon="-118.790350">
        <ele>2143.208</ele>
        <time>2018-12-30T07:32:15Z</time>
      </trkpt>
      <trkpt lat="36.611440" lon="-118.790220">
        <ele>2144.375</ele>
        <time>2018-12-30T07:32:35Z</time>
      </trkpt>
      <trkpt lat="36.611570" lon="-118.789880">
        <ele>2147.383</ele>
        <time>2018-12-30T07:32:55Z</time>
      </trkpt>
      <trkpt lat="36.611580" lon="-118.789830">
        <ele>2147.858</ele>
        <time>2018-12-30T07:33:15Z</time>
      </trkpt>
      <trkpt lat="36.611610" lon="-118.789770">
        <ele>2148.698</ele>
        <time>2018-12-30T07:33:35Z</time>
      </trkpt>
      <trkpt lat="36.611630" lon="-118.789720">
        <ele>2149.232</ele>
        <time>2018-12-30T07:33:55Z</time>
      </trkpt>
      <trkpt lat="36.611650" lon="-118.789680">
        <ele>2149.682</ele>
        <time>2018-12-30T07:34:15Z</time>
      </trkpt>
      <trkpt lat="36.611680" lon="-118.789640">
        <ele>2150.168</ele>
        <time>2018-12-30T07:34:35Z</time>
      </trkpt>
      <trkpt lat="36.611700" lon="-118.789590">
        <ele>2150.677</ele>
        <time>2018-12-30T07:34:55Z</time>
      </trkpt>
      <trkpt lat="36.611740" lon="-118.789530">
        <ele>2151.144</ele>
        <time>2018-12-30T07:35:15Z</time>
      </trkpt>
      <trkpt lat="36.611780" lon="-118.789460">
        <ele>2151.505</ele>
        <time>2018-12-30T07:35:35Z</time>
      </trkpt>
      <trkpt lat="36.611830" lon="-118.789390">
        <ele>2151.515</ele>
        <time>2018-12-30T07:35:55Z</time>
      </trkpt>
      <trkpt lat="36.611870" lon="-118.789350">
        <ele>2151.408</ele>
        <time>2018-12-30T07:36:15Z</time>
      </trkpt>
      <trkpt lat="36.611910" lon="-118.789300">
        <ele>2151.247</ele>
        <time>2018-12-30T07:36:35Z</time>
      </trkpt>
      <trkpt lat="36.611950" lon="-118.789250">
        <ele>2150.835</ele>
        <time>2018-12-30T07:36:55Z</time>
      </trkpt>
      <trkpt lat="36.611980" lon="-118.789220">
        <ele>2150.420</ele>
        <time>2018-12-30T07:37:15Z</time>
      </trkpt>
      <trkpt lat="36.612020" lon="-118.789180">
        <ele>2149.950</ele>
        <time>2018-12-30T07:37:35Z</time>
      </trkpt>
      <trkpt lat="36.612060" lon="-118.789140">
        <ele>2149.464</ele>
        <time>2018-12-30T07:37:55Z</time>
      </trkpt>
      <trkpt lat="36.612100" lon="-118.789110">
        <ele>2149.044</ele>
        <time>2018-12-30T07:38:15Z</time>
      </trkpt>
      <trkpt lat="36.612140" lon="-118.789070">
        <ele>2148.790</ele>
        <time>2018-12-30T07:38:35Z</time>
      </trkpt>
      <trkpt lat="36.612190" lon="-118.789030">
        <ele>2148.449</ele>
        <time>2018-12-30T07:38:55Z</time>
      </trkpt>
      <trkpt lat="36.612840" lon="-118.788580">
        <ele>2144.135</ele>
        <time>2018-12-30T07:39:15Z</time>
      </trkpt>
      <trkpt lat="36.613010" lon="-118.788460">
        <ele>2143.386</ele>
        <time>2018-12-30T07:39:35Z</time>
      </trkpt>
      <trkpt lat="36.613120" lon="-118.788390">
        <ele>2142.514</ele>
        <time>2018-12-30T07:39:55Z</time>
      </trkpt>
      <trkpt lat="36.613270" lon="-118.788280">
        <ele>2141.008</ele>
        <time>2018-12-30T07:40:15Z</time>
      </trkpt>
      <trkpt lat="36.613770" lon="-118.787930">
        <ele>2134.916</ele>
        <time>2018-12-30T07:40:35Z</time>
      </trkpt>
      <trkpt lat="36.613880" lon="-118.787850">
        <ele>2134.444</ele>
        <time>2018-12-30T07:40:55Z</time>
      </trkpt>
      <trkpt lat="36.615670" lon="-118.786620">
        <ele>2132.169</ele>
        <time>2018-12-30T07:41:15Z</time>
      </trkpt>
      <trkpt lat="36.615860" lon="-118.786480">
        <ele>2131.819</ele>
        <time>2018-12-30T07:41:35Z</time>
      </trkpt>
      <trkpt lat="36.616200" lon="-118.786240">
        <ele>2128.833</ele>
        <time>2018-12-30T07:41:55Z</time>
      </trkpt>
      <trkpt lat="36.616290" lon="-118.786180">
        <ele>2128.313</ele>
        <time>2018-12-30T07:42:15Z</time>
      </trkpt>
      <trkpt lat="36.616390" lon="-118.786110">
        <ele>2127.649</ele>
        <time>2018-12-30T07:42:35Z</time>
      </trkpt>
      <trkpt lat="36.616540" lon="-118.786000">
        <ele>2126.638</ele>
        <time>2018-12-30T07:42:55Z</time>
      </trkpt>
      <trkpt lat="36.616660" lon="-118.785910">
        <ele>2126.111</ele>
        <time>2018-12-30T07:43:15Z</time>
      </trkpt>
      <trkpt lat="36.616720" lon="-118.785850">
        <ele>2125.821</ele>
        <time>2018-12-30T07:43:35Z</time>
      </trkpt>
      <trkpt lat="36.616780" lon="-118.785790">
        <ele>2125.603</ele>
        <time>2018-12-30T07:43:55Z</time>
      </trkpt>
      <trkpt lat="36.616830" lon="-118.785740">
        <ele>2125.808</ele>
        <time>2018-12-30T07:44:15Z</time>
      </trkpt>
      <trkpt lat="36.616860" lon="-118.785700">
        <ele>2126.084</ele>
        <time>2018-12-30T07:44:35Z</time>
      </trkpt>
      <trkpt lat="36.616890" lon="-118.785650">
        <ele>2126.092</ele>
        <time>2018-12-30T07:44:55Z</time>
      </trkpt>
      <trkpt lat="36.616940" lon="-118.785570">
        <ele>2126.237</ele>
        <time>2018-12-30T07:45:15Z</time>
      </trkpt>
      <trkpt lat="36.616980" lon="-118.785500">
        <ele>2126.317</ele>
        <time>2018-12-30T07:45:35Z</time>
      </trkpt>
      <trkpt lat="36.617010" lon="-118.785440">
        <ele>2126.271</ele>
        <time>2018-12-30T07:45:55Z</time>
      </trkpt>
      <trkpt lat="36.617040" lon="-118.785370">
        <ele>2126.211</ele>
        <time>2018-12-30T07:46:15Z</time>
      </trkpt>
      <trkpt lat="36.617060" lon="-118.785320">
        <ele>2126.167</ele>
        <time>2018-12-30T07:46:35Z</time>
      </trkpt>
      <trkpt lat="36.617090" lon="-118.785250">
        <ele>2126.176</ele>
        <time>2018-12-30T07:46:55Z</time>
      </trkpt>
      <trkpt lat="36.617120" lon="-118.785170">
        <ele>2126.032</ele>
        <time>2018-12-30T07:47:15Z</time>
      </trkpt>
      <trkpt lat="36.617130" lon="-118.785100">
        <ele>2125.792</ele>
        <time>2018-12-30T07:47:35Z</time>
      </trkpt>
      <trkpt lat="36.617150" lon="-118.785020">
        <ele>2125.511</ele>
        <time>2018-12-30T07:47:55Z</time>
      </trkpt>
      <trkpt lat="36.617160" lon="-118.784950">
        <ele>2125.208</ele>
        <time>2018-12-30T07:48:15Z</time>
      </trkpt>
      <trkpt lat="36.617170" lon="-118.784900">
        <ele>2125.096</ele>
        <time>2018-12-30T07:48:35Z</time>
      </trkpt>
      <trkpt lat="36.617180" lon="-118.784840">
        <ele>2124.794</ele>
        <time>2018-12-30T07:48:55Z</time>
      </trkpt>
      <trkpt lat="36.617190" lon="-118.784740">
        <ele>2124.469</ele>
        <time>2018-12-30T07:49:15Z</time>
      </trkpt>
      <trkpt lat="36.617190" lon="-118.784650">
        <ele>2123.929</ele>
        <time>2018-12-30T07:49:35Z</time>
      </trkpt>
      <trkpt lat="36.617190" lon="-118.784590">
        <ele>2123.693</ele>
        <time>2018-12-30T07:49:55Z</time>
      </trkpt>
      <trkpt lat="36.617190" lon="-118.784530">
        <ele>2123.413</ele>
        <time>2018-12-30T07:50:15Z</time>
      </trkpt>
      <trkpt lat="36.617180" lon="-118.784470">
        <ele>2123.129</ele>
        <time>2018-12-30T07:50:35Z</time>
      </trkpt>
      <trkpt lat="36.617180" lon="-118.784390">
        <ele>2122.998</ele>
        <time>2018-12-30T07:50:55Z</time>
      </trkpt>
      <trkpt lat="36.617170" lon="-118.784320">
        <ele>2122.729</ele>
        <time>2018-12-30T07:51:15Z</time>
      </trkpt>
      <trkpt lat="36.617140" lon="-118.784190">
        <ele>2122.500</ele>
        <time>2018-12-30T07:51:35Z</time>
      </trkpt>
      <trkpt lat="36.617120" lon="-118.784120">
        <ele>2122.520</ele>
        <time>2018-12-30T07:51:55Z</time>
      </trkpt>
      <trkpt lat="36.617100" lon="-118.784050">
        <ele>2122.408</ele>
        <time>2018-12-30T07:52:15Z</time>
      </trkpt>
      <trkpt lat="36.617080" lon="-118.783970">
        <ele>2122.895</ele>
        <time>2018-12-30T07:52:35Z</time>
      </trkpt>
      <trkpt lat="36.617050" lon="-118.783900">
        <ele>2123.123</ele>
        <time>2018-12-30T07:52:55Z</time>
      </trkpt>
      <trkpt lat="36.617020" lon="-118.783840">
        <ele>2123.398</ele>
        <time>2018-12-30T07:53:15Z</time>
      </trkpt>
      <trkpt lat="36.617000" lon="-118.783790">
        <ele>2123.518</ele>
        <time>2018-12-30T07:53:35Z</time>
      </trkpt>
      <trkpt lat="36.616970" lon="-118.783720">
        <ele>2123.892</ele>
        <time>2018-12-30T07:53:55Z</time>
      </trkpt>
      <trkpt lat="36.616920" lon="-118.783650">
        <ele>2124.272</ele>
        <time>2018-12-30T07:54:15Z</time>
      </trkpt>
      <trkpt lat="36.616890" lon="-118.783600">
        <ele>2124.688</ele>
        <time>2018-12-30T07:54:35Z</time>
      </trkpt>
      <trkpt lat="36.616850" lon="-118.783540">
        <ele>2125.037</ele>
        <time>2018-12-30T07:54:55Z</time>
      </trkpt>
      <trkpt lat="36.616790" lon="-118.783470">
        <ele>2125.655</ele>
        <time>2018-12-30T07:55:15Z</time>
      </trkpt>
      <trkpt lat="36.616730" lon="-118.783400">
        <ele>2125.807</ele>
        <time>2018-12-30T07:55:35Z</time>
      </trkpt>
      <trkpt lat="36.616680" lon="-118.783340">
        <ele>2125.817</ele>
        <time>2018-12-30T07:55:55Z</time>
      </trkpt>
      <trkpt lat="36.616620" lon="-118.783290">
        <ele>2125.408</ele>
        <time>2018-12-30T07:56:15Z</time>
      </trkpt>
      <trkpt lat="36.616550" lon="-118.783230">
        <ele>2124.628</ele>
        <time>2018-12-30T07:56:35Z</time>
      </trkpt>
      <trkpt lat="36.616490" lon="-118.783190">
        <ele>2124.066</ele>
        <time>2018-12-30T07:56:55Z</time>
      </trkpt>
      <trkpt lat="36.616440" lon="-118.783150">
        <ele>2123.921</ele>
        <time>2018-12-30T07:57:15Z</time>
      </trkpt>
      <trkpt lat="36.616400" lon="-118.783120">
        <ele>2124.041</ele>
        <time>2018-12-30T07:57:35Z</time>
      </trkpt>
      <trkpt lat="36.616330" lon="-118.783090">
        <ele>2123.955</ele>
        <time>2018-12-30T07:57:55Z</time>
      </trkpt>
      <trkpt lat="36.616300" lon="-118.783070">
        <ele>2124.155</ele>
        <time>2018-12-30T07:58:15Z</time>
      </trkpt>
      <trkpt lat="36.616260" lon="-118.783050">
        <ele>2124.241</ele>
        <time>2018-12-30T07:58:35Z</time>
      </trkpt>
      <trkpt lat="36.616210" lon="-118.783030">
        <ele>2124.490</ele>
        <time>2018-12-30T07:58:55Z</time>
      </trkpt>
      <trkpt lat="36.616160" lon="-118.783010">
        <ele>2124.754</ele>
        <time>2018-12-30T07:59:15Z</time>
      </trkpt>
      <trkpt lat="36.616110" lon="-118.782980">
        <ele>2125.256</ele>
        <time>2018-12-30T07:59:35Z</time>
      </trkpt>
      <trkpt lat="36.616050" lon="-118.782960">
        <ele>2125.511</ele>
        <time>2018-12-30T07:59:55Z</time>
      </trkpt>
      <trkpt lat="36.616010" lon="-118.782950">
        <ele>2125.608</ele>
        <time>2018-12-30T08:00:15Z</time>
      </trkpt>
      <trkpt lat="36.615970" lon="-118.782930">
        <ele>2125.968</ele>
        <time>2018-12-30T08:00:35Z</time>
      </trkpt>
      <trkpt lat="36.615920" lon="-118.782920">
        <ele>2126.646</ele>
        <time>2018-12-30T08:00:55Z</time>
      </trkpt>
      <trkpt lat="36.615900" lon="-118.782910">
        <ele>2127.011</ele>
        <time>2018-12-30T08:01:15Z</time>
      </trkpt>
      <trkpt lat="36.615880" lon="-118.782910">
        <ele>2127.281</ele>
        <time>2018-12-30T08:01:35Z</time>
      </trkpt>
      <trkpt lat="36.615850" lon="-118.782900">
        <ele>2127.885</ele>
        <time>2018-12-30T08:01:55Z</time>
      </trkpt>
      <trkpt lat="36.615820" lon="-118.782900">
        <ele>2128.135</ele>
        <time>2018-12-30T08:02:15Z</time>
      </trkpt>
      <trkpt lat="36.615780" lon="-118.782900">
        <ele>2128.551</ele>
        <time>2018-12-30T08:02:35Z</time>
      </trkpt>
      <trkpt lat="36.615740" lon="-118.782890">
        <ele>2129.160</ele>
        <time>2018-12-30T08:02:55Z</time>
      </trkpt>
      <trkpt lat="36.615530" lon="-118.782880">
        <ele>2133.251</ele>
        <time>2018-12-30T08:03:15Z</time>
      </trkpt>
      <trkpt lat="36.615470" lon="-118.782880">
        <ele>2134.501</ele>
        <time>2018-12-30T08:03:35Z</time>
      </trkpt>
      <trkpt lat="36.615420" lon="-118.782890">
        <ele>2135.411</ele>
        <time>2018-12-30T08:03:55Z</time>
      </trkpt>
      <trkpt lat="36.615230" lon="-118.782900">
        <ele>2135.808</ele>
        <time>2018-12-30T08:04:15Z</time>
      </trkpt>
      <trkpt lat="36.615180" lon="-118.782910">
        <ele>2135.868</ele>
        <time>2018-12-30T08:04:35Z</time>
      </trkpt>
      <trkpt lat="36.615050" lon="-118.782920">
        <ele>2136.536</ele>
        <time>2018-12-30T08:04:55Z</time>
      </trkpt>
      <trkpt lat="36.614890" lon="-118.782950">
        <ele>2137.711</ele>
        <time>2018-12-30T08:05:15Z</time>
      </trkpt>
      <trkpt lat="36.614820" lon="-118.782960">
        <ele>2138.381</ele>
        <time>2018-12-30T08:05:35Z</time>
      </trkpt>
      <trkpt lat="36.614780" lon="-118.782960">
        <ele>2138.515</ele>
        <time>2018-12-30T08:05:55Z</time>
      </trkpt>
      <trkpt lat="36.614740" lon="-118.782970">
        <ele>2138.825</ele>
        <time>2018-12-30T08:06:15Z</time>
      </trkpt>
      <trkpt lat="36.614700" lon="-118.782970">
        <ele>2139.031</ele>
        <time>2018-12-30T08:06:35Z</time>
      </trkpt>
      <trkpt lat="36.614660" lon="-118.782970">
        <ele>2139.390</ele>
        <time>2018-12-30T08:06:55Z</time>
      </trkpt>
      <trkpt lat="36.614620" lon="-118.782970">
        <ele>2139.693</ele>
        <time>2018-12-30T08:07:15Z</time>
      </trkpt>
      <trkpt lat="36.614560" lon="-118.782960">
        <ele>2140.165</ele>
        <time>2018-12-30T08:07:35Z</time>
      </trkpt>
      <trkpt lat="36.614510" lon="-118.782960">
        <ele>2140.321</ele>
        <time>2018-12-30T08:07:55Z</time>
      </trkpt>
      <trkpt lat="36.614460" lon="-118.782950">
        <ele>2140.608</ele>
        <time>2018-12-30T08:08:15Z</time>
      </trkpt>
      <trkpt lat="36.614410" lon="-118.782930">
        <ele>2141.182</ele>
        <time>2018-12-30T08:08:35Z</time>
      </trkpt>
      <trkpt lat="36.614370" lon="-118.782920">
        <ele>2141.430</ele>
        <time>2018-12-30T08:08:55Z</time>
      </trkpt>
      <trkpt lat="36.614330" lon="-118.782910">
        <ele>2141.745</ele>
        <time>2018-12-30T08:09:15Z</time>
      </trkpt>
      <trkpt lat="36.614290" lon="-118.782900">
        <ele>2142.035</ele>
        <time>2018-12-30T08:09:35Z</time>
      </trkpt>
      <trkpt lat="36.614230" lon="-118.782880">
        <ele>2142.259</ele>
        <time>2018-12-30T08:09:55Z</time>
      </trkpt>
      <trkpt lat="36.614020" lon="-118.782800">
        <ele>2144.419</ele>
        <time>2018-12-30T08:10:15Z</time>
      </trkpt>
      <trkpt lat="36.613970" lon="-118.782780">
        <ele>2144.835</ele>
        <time>2018-12-30T08:10:35Z</time>
      </trkpt>
      <trkpt lat="36.613920" lon="-118.782760">
        <ele>2145.284</ele>
        <time>2018-12-30T08:10:55Z</time>
      </trkpt>
      <trkpt lat="36.613880" lon="-118.782750">
        <ele>2145.313</ele>
        <time>2018-12-30T08:11:15Z</time>
      </trkpt>
      <trkpt lat="36.613840" lon="-118.782740">
        <ele>2145.443</ele>
        <time>2018-12-30T08:11:35Z</time>
      </trkpt>
      <trkpt lat="36.613820" lon="-118.782730">
        <ele>2145.607</ele>
        <time>2018-12-30T08:11:55Z</time>
      </trkpt>
      <trkpt lat="36.613800" lon="-118.782730">
        <ele>2145.508</ele>
        <time>2018-12-30T08:12:15Z</time>
      </trkpt>
      <trkpt lat="36.613770" lon="-118.782720">
        <ele>2145.714</ele>
        <time>2018-12-30T08:12:35Z</time>
      </trkpt>
      <trkpt lat="36.613750" lon="-118.782720">
        <ele>2145.632</ele>
        <time>2018-12-30T08:12:55Z</time>
      </trkpt>
      <trkpt lat="36.613730" lon="-118.782720">
        <ele>2145.877</ele>
        <time>2018-12-30T08:13:15Z</time>
      </trkpt>
      <trkpt lat="36.613700" lon="-118.782720">
        <ele>2146.147</ele>
        <time>2018-12-30T08:13:35Z</time>
      </trkpt>
      <trkpt lat="36.613670" lon="-118.782720">
        <ele>2146.481</ele>
        <time>2018-12-30T08:13:55Z</time>
      </trkpt>
      <trkpt lat="36.613640" lon="-118.782720">
        <ele>2146.721</ele>
        <time>2018-12-30T08:14:15Z</time>
      </trkpt>
      <trkpt lat="36.613600" lon="-118.782720">
        <ele>2147.137</ele>
        <time>2018-12-30T08:14:35Z</time>
      </trkpt>
      <trkpt lat="36.613560" lon="-118.782730">
        <ele>2147.376</ele>
        <time>2018-12-30T08:14:55Z</time>
      </trkpt>
      <trkpt lat="36.613130" lon="-118.782820">
        <ele>2148.598</ele>
        <time>2018-12-30T08:15:15Z</time>
      </trkpt>
      <trkpt lat="36.612710" lon="-118.782930">
        <ele>2151.015</ele>
        <time>2018-12-30T08:15:35Z</time>
      </trkpt>
      <trkpt lat="36.612630" lon="-118.782960">
        <ele>2152.226</ele>
        <time>2018-12-30T08:15:55Z</time>
      </trkpt>
      <trkpt lat="36.612550" lon="-118.782970">
        <ele>2154.208</ele>
        <time>2018-12-30T08:16:15Z</time>
      </trkpt>
      <trkpt lat="36.612500" lon="-118.782980">
        <ele>2155.442</ele>
        <time>2018-12-30T08:16:35Z</time>
      </trkpt>
      <trkpt lat="36.612450" lon="-118.782990">
        <ele>2156.780</ele>
        <time>2018-12-30T08:16:55Z</time>
      </trkpt>
      <trkpt lat="36.612430" lon="-118.782990">
        <ele>2157.285</ele>
        <time>2018-12-30T08:17:15Z</time>
      </trkpt>
      <trkpt lat="36.612400" lon="-118.782990">
        <ele>2158.115</ele>
        <time>2018-12-30T08:17:35Z</time>
      </trkpt>
      <trkpt lat="36.612370" lon="-118.782990">
        <ele>2158.929</ele>
        <time>2018-12-30T08:17:55Z</time>
      </trkpt>
      <trkpt lat="36.612340" lon="-118.782990">
        <ele>2159.529</ele>
        <time>2018-12-30T08:18:15Z</time>
      </trkpt>
      <trkpt lat="36.612320" lon="-118.782980">
        <ele>2159.925</ele>
        <time>2018-12-30T08:18:35Z</time>
      </trkpt>
      <trkpt lat="36.612290" lon="-118.782980">
        <ele>2160.514</ele>
        <time>2018-12-30T08:18:55Z</time>
      </trkpt>
      <trkpt lat="36.612250" lon="-118.782970">
        <ele>2161.432</ele>
        <time>2018-12-30T08:19:15Z</time>
      </trkpt>
      <trkpt lat="36.612210" lon="-118.782960">
        <ele>2162.292</ele>
        <time>2018-12-30T08:19:35Z</time>
      </trkpt>
      <trkpt lat="36.612160" lon="-118.782950">
        <ele>2163.311</ele>
        <time>2018-12-30T08:19:55Z</time>
      </trkpt>
      <trkpt lat="36.612130" lon="-118.782940">
        <ele>2164.108</ele>
        <time>2018-12-30T08:20:15Z</time>
      </trkpt>
      <trkpt lat="36.612100" lon="-118.782920">
        <ele>2164.956</ele>
        <time>2018-12-30T08:20:35Z</time>
      </trkpt>
      <trkpt lat="36.612050" lon="-118.782900">
        <ele>2165.014</ele>
        <time>2018-12-30T08:20:55Z</time>
      </trkpt>
      <trkpt lat="36.612000" lon="-118.782870">
        <ele>2164.699</ele>
        <time>2018-12-30T08:21:15Z</time>
      </trkpt>
      <trkpt lat="36.611960" lon="-118.782840">
        <ele>2164.479</ele>
        <time>2018-12-30T08:21:35Z</time>
      </trkpt>
      <trkpt lat="36.611910" lon="-118.782800">
        <ele>2164.013</ele>
        <time>2018-12-30T08:21:55Z</time>
      </trkpt>
      <trkpt lat="36.611880" lon="-118.782770">
        <ele>2163.963</ele>
        <time>2018-12-30T08:22:15Z</time>
      </trkpt>
      <trkpt lat="36.611850" lon="-118.782730">
        <ele>2163.779</ele>
        <time>2018-12-30T08:22:35Z</time>
      </trkpt>
      <trkpt lat="36.611750" lon="-118.782610">
        <ele>2162.898</ele>
        <time>2018-12-30T08:22:55Z</time>
      </trkpt>
      <trkpt lat="36.611720" lon="-118.782570">
        <ele>2162.639</ele>
        <time>2018-12-30T08:23:15Z</time>
      </trkpt>
      <trkpt lat="36.611700" lon="-118.782540">
        <ele>2162.501</ele>
        <time>2018-12-30T08:23:35Z</time>
      </trkpt>
      <trkpt lat="36.611670" lon="-118.782500">
        <ele>2162.321</ele>
        <time>2018-12-30T08:23:55Z</time>
      </trkpt>
      <trkpt lat="36.611630" lon="-118.782430">
        <ele>2162.308</ele>
        <time>2018-12-30T08:24:15Z</time>
      </trkpt>
      <trkpt lat="36.611610" lon="-118.782380">
        <ele>2162.556</ele>
        <time>2018-12-30T08:24:35Z</time>
      </trkpt>
      <trkpt lat="36.611550" lon="-118.782240">
        <ele>2163.084</ele>
        <time>2018-12-30T08:24:55Z</time>
      </trkpt>
      <trkpt lat="36.611480" lon="-118.782060">
        <ele>2163.489</ele>
        <time>2018-12-30T08:25:15Z</time>
      </trkpt>
      <trkpt lat="36.611460" lon="-118.782010">
        <ele>2163.389</ele>
        <time>2018-12-30T08:25:35Z</time>
      </trkpt>
      <trkpt lat="36.611450" lon="-118.781970">
        <ele>2163.563</ele>
        <time>2018-12-30T08:25:55Z</time>
      </trkpt>
      <trkpt lat="36.611420" lon="-118.781930">
        <ele>2163.093</ele>
        <time>2018-12-30T08:26:15Z</time>
      </trkpt>
      <trkpt lat="36.611390" lon="-118.781870">
        <ele>2162.729</ele>
        <time>2018-12-30T08:26:35Z</time>
      </trkpt>
      <trkpt lat="36.611360" lon="-118.781820">
        <ele>2162.278</ele>
        <time>2018-12-30T08:26:55Z</time>
      </trkpt>
      <trkpt lat="36.611320" lon="-118.781780">
        <ele>2161.547</ele>
        <time>2018-12-30T08:27:15Z</time>
      </trkpt>
      <trkpt lat="36.611290" lon="-118.781740">
        <ele>2161.429</ele>
        <time>2018-12-30T08:27:35Z</time>
      </trkpt>
      <trkpt lat="36.611250" lon="-118.781700">
        <ele>2160.921</ele>
        <time>2018-12-30T08:27:55Z</time>
      </trkpt>
      <trkpt lat="36.611210" lon="-118.781660">
        <ele>2160.508</ele>
        <time>2018-12-30T08:28:15Z</time>
      </trkpt>
      <trkpt lat="36.611170" lon="-118.781630">
        <ele>2160.047</ele>
        <time>2018-12-30T08:28:35Z</time>
      </trkpt>
      <trkpt lat="36.611130" lon="-118.781600">
        <ele>2159.735</ele>
        <time>2018-12-30T08:28:55Z</time>
      </trkpt>
      <trkpt lat="36.611060" lon="-118.781560">
        <ele>2159.110</ele>
        <time>2018-12-30T08:29:15Z</time>
      </trkpt>
      <trkpt lat="36.610930" lon="-118.781470">
        <ele>2159.660</ele>
        <time>2018-12-30T08:29:35Z</time>
      </trkpt>
      <trkpt lat="36.610880" lon="-118.781440">
        <ele>2159.824</ele>
        <time>2018-12-30T08:29:55Z</time>
      </trkpt>
      <trkpt lat="36.610830" lon="-118.781400">
        <ele>2160.744</ele>
        <time>2018-12-30T08:30:15Z</time>
      </trkpt>
      <trkpt lat="36.610790" lon="-118.781370">
        <ele>2161.480</ele>
        <time>2018-12-30T08:30:35Z</time>
      </trkpt>
      <trkpt lat="36.610760" lon="-118.781340">
        <ele>2162.459</ele>
        <time>2018-12-30T08:30:55Z</time>
      </trkpt>
      <trkpt lat="36.610730" lon="-118.781310">
        <ele>2163.571</ele>
        <time>2018-12-30T08:31:15Z</time>
      </trkpt>
      <trkpt lat="36.610710" lon="-118.781280">
        <ele>2164.741</ele>
        <time>2018-12-30T08:31:35Z</time>
      </trkpt>
      <trkpt lat="36.610680" lon="-118.781240">
        <ele>2165.815</ele>
        <time>2018-12-30T08:31:55Z</time>
      </trkpt>
      <trkpt lat="36.610660" lon="-118.781210">
        <ele>2165.908</ele>
        <time>2018-12-30T08:32:15Z</time>
      </trkpt>
      <trkpt lat="36.610640" lon="-118.781170">
        <ele>2166.290</ele>
        <time>2018-12-30T08:32:35Z</time>
      </trkpt>
      <trkpt lat="36.610610" lon="-118.781120">
        <ele>2166.388</ele>
        <time>2018-12-30T08:32:55Z</time>
      </trkpt>
      <trkpt lat="36.610580" lon="-118.781080">
        <ele>2166.113</ele>
        <time>2018-12-30T08:33:15Z</time>
      </trkpt>
      <trkpt lat="36.610560" lon="-118.781040">
        <ele>2166.313</ele>
        <time>2018-12-30T08:33:35Z</time>
      </trkpt>
      <trkpt lat="36.610540" lon="-118.780990">
        <ele>2166.797</ele>
        <time>2018-12-30T08:33:55Z</time>
      </trkpt>
      <trkpt lat="36.610520" lon="-118.780920">
        <ele>2167.387</ele>
        <time>2018-12-30T08:34:15Z</time>
      </trkpt>
      <trkpt lat="36.610500" lon="-118.780850">
        <ele>2167.733</ele>
        <time>2018-12-30T08:34:35Z</time>
      </trkpt>
      <trkpt lat="36.610480" lon="-118.780780">
        <ele>2168.352</ele>
        <time>2018-12-30T08:34:55Z</time>
      </trkpt>
      <trkpt lat="36.610470" lon="-118.780720">
        <ele>2169.137</ele>
        <time>2018-12-30T08:35:15Z</time>
      </trkpt>
      <trkpt lat="36.610460" lon="-118.780660">
        <ele>2169.649</ele>
        <time>2018-12-30T08:35:35Z</time>
      </trkpt>
      <trkpt lat="36.610430" lon="-118.780440">
        <ele>2171.013</ele>
        <time>2018-12-30T08:35:55Z</time>
      </trkpt>
      <trkpt lat="36.610430" lon="-118.780380">
        <ele>2171.608</ele>
        <time>2018-12-30T08:36:15Z</time>
      </trkpt>
      <trkpt lat="36.610420" lon="-118.780340">
        <ele>2171.656</ele>
        <time>2018-12-30T08:36:35Z</time>
      </trkpt>
      <trkpt lat="36.610410" lon="-118.780290">
        <ele>2171.694</ele>
        <time>2018-12-30T08:36:55Z</time>
      </trkpt>
      <trkpt lat="36.610400" lon="-118.780250">
        <ele>2171.419</ele>
        <time>2018-12-30T08:37:15Z</time>
      </trkpt>
      <trkpt lat="36.610390" lon="-118.780210">
        <ele>2171.339</ele>
        <time>2018-12-30T08:37:35Z</time>
      </trkpt>
      <trkpt lat="36.610380" lon="-118.780160">
        <ele>2171.233</ele>
        <time>2018-12-30T08:37:55Z</time>
      </trkpt>
      <trkpt lat="36.610370" lon="-118.780120">
        <ele>2171.263</ele>
        <time>2018-12-30T08:38:15Z</time>
      </trkpt>
      <trkpt lat="36.610350" lon="-118.780080">
        <ele>2171.059</ele>
        <time>2018-12-30T08:38:35Z</time>
      </trkpt>
      <trkpt lat="36.610330" lon="-118.780030">
        <ele>2171.078</ele>
        <time>2018-12-30T08:38:55Z</time>
      </trkpt>
      <trkpt lat="36.610290" lon="-118.779940">
        <ele>2171.269</ele>
        <time>2018-12-30T08:39:15Z</time>
      </trkpt>
      <trkpt lat="36.610250" lon="-118.779860">
        <ele>2171.704</ele>
        <time>2018-12-30T08:39:35Z</time>
      </trkpt>
      <trkpt lat="36.610170" lon="-118.779720">
        <ele>2171.924</ele>
        <time>2018-12-30T08:39:55Z</time>
      </trkpt>
      <trkpt lat="36.610150" lon="-118.779680">
        <ele>2172.108</ele>
        <time>2018-12-30T08:40:15Z</time>
      </trkpt>
      <trkpt lat="36.610120" lon="-118.779640">
        <ele>2172.019</ele>
        <time>2018-12-30T08:40:35Z</time>
      </trkpt>
      <trkpt lat="36.610100" lon="-118.779600">
        <ele>2172.287</ele>
        <time>2018-12-30T08:40:55Z</time>
      </trkpt>
      <trkpt lat="36.610080" lon="-118.779550">
        <ele>2172.332</ele>
        <time>2018-12-30T08:41:15Z</time>
      </trkpt>
      <trkpt lat="36.610070" lon="-118.779510">
        <ele>2172.432</ele>
        <time>2018-12-30T08:41:35Z</time>
      </trkpt>
      <trkpt lat="36.610050" lon="-118.779470">
        <ele>2172.276</ele>
        <time>2018-12-30T08:41:55Z</time>
      </trkpt>
      <trkpt lat="36.610040" lon="-118.779430">
        <ele>2172.376</ele>
        <time>2018-12-30T08:42:15Z</time>
      </trkpt>
      <trkpt lat="36.610020" lon="-118.779390">
        <ele>2172.142</ele>
        <time>2018-12-30T08:42:35Z</time>
      </trkpt>
      <trkpt lat="36.610010" lon="-118.779340">
        <ele>2172.261</ele>
        <time>2018-12-30T08:42:55Z</time>
      </trkpt>
      <trkpt lat="36.610010" lon="-118.779300">
        <ele>2172.642</ele>
        <time>2018-12-30T08:43:15Z</time>
      </trkpt>
      <trkpt lat="36.610000" lon="-118.779260">
        <ele>2172.422</ele>
        <time>2018-12-30T08:43:35Z</time>
      </trkpt>
      <trkpt lat="36.609990" lon="-118.779210">
        <ele>2172.314</ele>
        <time>2018-12-30T08:43:55Z</time>
      </trkpt>
      <trkpt lat="36.609980" lon="-118.779160">
        <ele>2172.108</ele>
        <time>2018-12-30T08:44:15Z</time>
      </trkpt>
      <trkpt lat="36.609980" lon="-118.779110">
        <ele>2172.347</ele>
        <time>2018-12-30T08:44:35Z</time>
      </trkpt>
      <trkpt lat="36.609980" lon="-118.779070">
        <ele>2172.495</ele>
        <time>2018-12-30T08:44:55Z</time>
      </trkpt>
      <trkpt lat="36.609980" lon="-118.779030">
        <ele>2172.530</ele>
        <time>2018-12-30T08:45:15Z</time>
      </trkpt>
      <trkpt lat="36.609980" lon="-118.778970">
        <ele>2172.380</ele>
        <time>2018-12-30T08:45:35Z</time>
      </trkpt>
      <trkpt lat="36.609980" lon="-118.778900">
        <ele>2172.094</ele>
        <time>2018-12-30T08:45:55Z</time>
      </trkpt>
      <trkpt lat="36.609990" lon="-118.778850">
        <ele>2172.254</ele>
        <time>2018-12-30T08:46:15Z</time>
      </trkpt>
      <trkpt lat="36.609990" lon="-118.778790">
        <ele>2171.940</ele>
        <time>2018-12-30T08:46:35Z</time>
      </trkpt>
      <trkpt lat="36.610010" lon="-118.778740">
        <ele>2172.689</ele>
        <time>2018-12-30T08:46:55Z</time>
      </trkpt>
      <trkpt lat="36.610020" lon="-118.778680">
        <ele>2172.686</ele>
        <time>2018-12-30T08:47:15Z</time>
      </trkpt>
      <trkpt lat="36.610030" lon="-118.778620">
        <ele>2172.660</ele>
        <time>2018-12-30T08:47:35Z</time>
      </trkpt>
      <trkpt lat="36.610050" lon="-118.778570">
        <ele>2173.326</ele>
        <time>2018-12-30T08:47:55Z</time>
      </trkpt>
      <trkpt lat="36.610140" lon="-118.778260">
        <ele>2174.208</ele>
        <time>2018-12-30T08:48:15Z</time>
      </trkpt>
      <trkpt lat="36.610260" lon="-118.777880">
        <ele>2172.131</ele>
        <time>2018-12-30T08:48:35Z</time>
      </trkpt>
      <trkpt lat="36.610270" lon="-118.777850">
        <ele>2172.059</ele>
        <time>2018-12-30T08:48:55Z</time>
      </trkpt>
      <trkpt lat="36.610280" lon="-118.777810">
        <ele>2171.534</ele>
        <time>2018-12-30T08:49:15Z</time>
      </trkpt>
      <trkpt lat="36.610290" lon="-118.777780">
        <ele>2171.264</ele>
        <time>2018-12-30T08:49:35Z</time>
      </trkpt>
      <trkpt lat="36.610300" lon="-118.777710">
        <ele>2169.798</ele>
        <time>2018-12-30T08:49:55Z</time>
      </trkpt>
      <trkpt lat="36.610310" lon="-118.777680">
        <ele>2169.338</ele>
        <time>2018-12-30T08:50:15Z</time>
      </trkpt>
      <trkpt lat="36.610310" lon="-118.777660">
        <ele>2168.794</ele>
        <time>2018-12-30T08:50:35Z</time>
      </trkpt>
      <trkpt lat="36.610310" lon="-118.777630">
        <ele>2168.033</ele>
        <time>2018-12-30T08:50:55Z</time>
      </trkpt>
      <trkpt lat="36.610320" lon="-118.777600">
        <ele>2168.124</ele>
        <time>2018-12-30T08:51:15Z</time>
      </trkpt>
      <trkpt lat="36.610320" lon="-118.777580">
        <ele>2168.004</ele>
        <time>2018-12-30T08:51:35Z</time>
      </trkpt>
      <trkpt lat="36.610320" lon="-118.777550">
        <ele>2167.814</ele>
        <time>2018-12-30T08:51:55Z</time>
      </trkpt>
      <trkpt lat="36.610320" lon="-118.777520">
        <ele>2167.508</ele>
        <time>2018-12-30T08:52:15Z</time>
      </trkpt>
      <trkpt lat="36.610320" lon="-118.777490">
        <ele>2167.395</ele>
        <time>2018-12-30T08:52:35Z</time>
      </trkpt>
      <trkpt lat="36.610310" lon="-118.777460">
        <ele>2166.793</ele>
        <time>2018-12-30T08:52:55Z</time>
      </trkpt>
      <trkpt lat="36.610310" lon="-118.777430">
        <ele>2166.458</ele>
        <time>2018-12-30T08:53:15Z</time>
      </trkpt>
      <trkpt lat="36.610310" lon="-118.777410">
        <ele>2166.328</ele>
        <time>2018-12-30T08:53:35Z</time>
      </trkpt>
      <trkpt lat="36.610300" lon="-118.777370">
        <ele>2165.642</ele>
        <time>2018-12-30T08:53:55Z</time>
      </trkpt>
      <trkpt lat="36.610290" lon="-118.777330">
        <ele>2165.232</ele>
        <time>2018-12-30T08:54:15Z</time>
      </trkpt>
      <trkpt lat="36.610280" lon="-118.777290">
        <ele>2165.018</ele>
        <time>2018-12-30T08:54:35Z</time>
      </trkpt>
      <trkpt lat="36.610260" lon="-118.777250">
        <ele>2164.627</ele>
        <time>2018-12-30T08:54:55Z</time>
      </trkpt>
      <trkpt lat="36.610250" lon="-118.777210">
        <ele>2164.482</ele>
        <time>2018-12-30T08:55:15Z</time>
      </trkpt>
      <trkpt lat="36.610230" lon="-118.777170">
        <ele>2164.143</ele>
        <time>2018-12-30T08:55:35Z</time>
      </trkpt>
      <trkpt lat="36.610210" lon="-118.777130">
        <ele>2163.817</ele>
        <time>2018-12-30T08:55:55Z</time>
      </trkpt>
      <trkpt lat="36.610190" lon="-118.777090">
        <ele>2163.608</ele>
        <time>2018-12-30T08:56:15Z</time>
      </trkpt>
      <trkpt lat="36.610160" lon="-118.777050">
        <ele>2163.491</ele>
        <time>2018-12-30T08:56:35Z</time>
      </trkpt>
      <trkpt lat="36.610150" lon="-118.777020">
        <ele>2163.679</ele>
        <time>2018-12-30T08:56:55Z</time>
      </trkpt>
      <trkpt lat="36.610120" lon="-118.776990">
        <ele>2163.114</ele>
        <time>2018-12-30T08:57:15Z</time>
      </trkpt>
      <trkpt lat="36.610090" lon="-118.776960">
        <ele>2162.674</ele>
        <time>2018-12-30T08:57:35Z</time>
      </trkpt>
      <trkpt lat="36.610070" lon="-118.776930">
        <ele>2162.428</ele>
        <time>2018-12-30T08:57:55Z</time>
      </trkpt>
      <trkpt lat="36.610040" lon="-118.776910">
        <ele>2161.898</ele>
        <time>2018-12-30T08:58:15Z</time>
      </trkpt>
      <trkpt lat="36.610020" lon="-118.776890">
        <ele>2161.684</ele>
        <time>2018-12-30T08:58:35Z</time>
      </trkpt>
      <trkpt lat="36.610000" lon="-118.776870">
        <ele>2161.483</ele>
        <time>2018-12-30T08:58:55Z</time>
      </trkpt>
      <trkpt lat="36.609970" lon="-118.776850">
        <ele>2160.984</ele>
        <time>2018-12-30T08:59:15Z</time>
      </trkpt>
      <trkpt lat="36.609930" lon="-118.776830">
        <ele>2160.207</ele>
        <time>2018-12-30T08:59:35Z</time>
      </trkpt>
      <trkpt lat="36.609900" lon="-118.776810">
        <ele>2159.917</ele>
        <time>2018-12-30T08:59:55Z</time>
      </trkpt>
      <trkpt lat="36.609360" lon="-118.776520">
        <ele>2168.308</ele>
        <time>2018-12-30T09:00:15Z</time>
      </trkpt>
      <trkpt lat="36.608730" lon="-118.776190">
        <ele>2172.741</ele>
        <time>2018-12-30T09:00:35Z</time>
      </trkpt>
      <trkpt lat="36.608380" lon="-118.776030">
        <ele>2175.489</ele>
        <time>2018-12-30T09:00:55Z</time>
      </trkpt>
      <trkpt lat="36.608260" lon="-118.775980">
        <ele>2175.884</ele>
        <time>2018-12-30T09:01:15Z</time>
      </trkpt>
      <trkpt lat="36.608200" lon="-118.775950">
        <ele>2176.034</ele>
        <time>2018-12-30T09:01:35Z</time>
      </trkpt>
      <trkpt lat="36.608140" lon="-118.775920">
        <ele>2175.958</ele>
        <time>2018-12-30T09:01:55Z</time>
      </trkpt>
      <trkpt lat="36.608100" lon="-118.775900">
        <ele>2175.768</ele>
        <time>2018-12-30T09:02:15Z</time>
      </trkpt>
      <trkpt lat="36.608060" lon="-118.775870">
        <ele>2175.844</ele>
        <time>2018-12-30T09:02:35Z</time>
      </trkpt>
      <trkpt lat="36.608010" lon="-118.775840">
        <ele>2175.753</ele>
        <time>2018-12-30T09:02:55Z</time>
      </trkpt>
      <trkpt lat="36.607970" lon="-118.775800">
        <ele>2175.893</ele>
        <time>2018-12-30T09:03:15Z</time>
      </trkpt>
      <trkpt lat="36.607920" lon="-118.775760">
        <ele>2175.965</ele>
        <time>2018-12-30T09:03:35Z</time>
      </trkpt>
      <trkpt lat="36.607870" lon="-118.775710">
        <ele>2176.121</ele>
        <time>2018-12-30T09:03:55Z</time>
      </trkpt>
      <trkpt lat="36.607840" lon="-118.775680">
        <ele>2176.208</ele>
        <time>2018-12-30T09:04:15Z</time>
      </trkpt>
      <trkpt lat="36.607810" lon="-118.775640">
        <ele>2176.372</ele>
        <time>2018-12-30T09:04:35Z</time>
      </trkpt>
      <trkpt lat="36.607790" lon="-118.775610">
        <ele>2176.580</ele>
        <time>2018-12-30T09:04:55Z</time>
      </trkpt>
      <trkpt lat="36.607760" lon="-118.775570">
        <ele>2176.635</ele>
        <time>2018-12-30T09:05:15Z</time>
      </trkpt>
      <trkpt lat="36.607730" lon="-118.775530">
        <ele>2176.795</ele>
        <time>2018-12-30T09:05:35Z</time>
      </trkpt>
      <trkpt lat="36.607700" lon="-118.775460">
        <ele>2177.299</ele>
        <time>2018-12-30T09:05:55Z</time>
      </trkpt>
      <trkpt lat="36.607670" lon="-118.775410">
        <ele>2177.479</ele>
        <time>2018-12-30T09:06:15Z</time>
      </trkpt>
      <trkpt lat="36.607650" lon="-118.775360">
        <ele>2177.545</ele>
        <time>2018-12-30T09:06:35Z</time>
      </trkpt>
      <trkpt lat="36.607630" lon="-118.775330">
        <ele>2177.424</ele>
        <time>2018-12-30T09:06:55Z</time>
      </trkpt>
      <trkpt lat="36.607610" lon="-118.775280">
        <ele>2177.656</ele>
        <time>2018-12-30T09:07:15Z</time>
      </trkpt>
      <trkpt lat="36.607600" lon="-118.775230">
        <ele>2177.959</ele>
        <time>2018-12-30T09:07:35Z</time>
      </trkpt>
      <trkpt lat="36.607570" lon="-118.775160">
        <ele>2178.014</ele>
        <time>2018-12-30T09:07:55Z</time>
      </trkpt>
      <trkpt lat="36.607560" lon="-118.775100">
        <ele>2178.208</ele>
        <time>2018-12-30T09:08:15Z</time>
      </trkpt>
      <trkpt lat="36.607540" lon="-118.775040">
        <ele>2178.018</ele>
        <time>2018-12-30T09:08:35Z</time>
      </trkpt>
      <trkpt lat="36.607530" lon="-118.774970">
        <ele>2178.166</ele>
        <time>2018-12-30T09:08:55Z</time>
      </trkpt>
      <trkpt lat="36.607520" lon="-118.774870">
        <ele>2178.211</ele>
        <time>2018-12-30T09:09:15Z</time>
      </trkpt>
      <trkpt lat="36.607480" lon="-118.774480">
        <ele>2177.531</ele>
        <time>2018-12-30T09:09:35Z</time>
      </trkpt>
      <trkpt lat="36.607480" lon="-118.774430">
        <ele>2177.625</ele>
        <time>2018-12-30T09:09:55Z</time>
      </trkpt>
      <trkpt lat="36.607470" lon="-118.774380">
        <ele>2177.335</ele>
        <time>2018-12-30T09:10:15Z</time>
      </trkpt>
      <trkpt lat="36.607470" lon="-118.774330">
        <ele>2177.331</ele>
        <time>2018-12-30T09:10:35Z</time>
      </trkpt>
      <trkpt lat="36.607460" lon="-118.774280">
        <ele>2177.120</ele>
        <time>2018-12-30T09:10:55Z</time>
      </trkpt>
      <trkpt lat="36.607450" lon="-118.774230">
        <ele>2176.954</ele>
        <time>2018-12-30T09:11:15Z</time>
      </trkpt>
      <trkpt lat="36.607440" lon="-118.774160">
        <ele>2176.856</ele>
        <time>2018-12-30T09:11:35Z</time>
      </trkpt>
      <trkpt lat="36.607420" lon="-118.774110">
        <ele>2176.311</ele>
        <time>2018-12-30T09:11:55Z</time>
      </trkpt>
      <trkpt lat="36.607410" lon="-118.774040">
        <ele>2176.108</ele>
        <time>2018-12-30T09:12:15Z</time>
      </trkpt>
      <trkpt lat="36.607380" lon="-118.773950">
        <ele>2175.948</ele>
        <time>2018-12-30T09:12:35Z</time>
      </trkpt>
      <trkpt lat="36.607350" lon="-118.773870">
        <ele>2175.546</ele>
        <time>2018-12-30T09:12:55Z</time>
      </trkpt>
      <trkpt lat="36.607330" lon="-118.773810">
        <ele>2175.471</ele>
        <time>2018-12-30T09:13:15Z</time>
      </trkpt>
      <trkpt lat="36.607310" lon="-118.773750">
        <ele>2175.371</ele>
        <time>2018-12-30T09:13:35Z</time>
      </trkpt>
      <trkpt lat="36.607230" lon="-118.773560">
        <ele>2174.185</ele>
        <time>2018-12-30T09:13:55Z</time>
      </trkpt>
      <trkpt lat="36.607170" lon="-118.773440">
        <ele>2172.825</ele>
        <time>2018-12-30T09:14:15Z</time>
      </trkpt>
      <trkpt lat="36.607150" lon="-118.773380">
        <ele>2172.571</ele>
        <time>2018-12-30T09:14:35Z</time>
      </trkpt>
      <trkpt lat="36.607130" lon="-118.773330">
        <ele>2172.280</ele>
        <time>2018-12-30T09:14:55Z</time>
      </trkpt>
      <trkpt lat="36.607110" lon="-118.773270">
        <ele>2171.853</ele>
        <time>2018-12-30T09:15:15Z</time>
      </trkpt>
      <trkpt lat="36.607100" lon="-118.773230">
        <ele>2171.704</ele>
        <time>2018-12-30T09:15:35Z</time>
      </trkpt>
      <trkpt lat="36.607090" lon="-118.773190">
        <ele>2171.614</ele>
        <time>2018-12-30T09:15:55Z</time>
      </trkpt>
      <trkpt lat="36.607080" lon="-118.773150">
        <ele>2171.408</ele>
        <time>2018-12-30T09:16:15Z</time>
      </trkpt>
      <trkpt lat="36.607070" lon="-118.773120">
        <ele>2171.288</ele>
        <time>2018-12-30T09:16:35Z</time>
      </trkpt>
      <trkpt lat="36.607070" lon="-118.773090">
        <ele>2171.356</ele>
        <time>2018-12-30T09:16:55Z</time>
      </trkpt>
      <trkpt lat="36.607060" lon="-118.773050">
        <ele>2171.161</ele>
        <time>2018-12-30T09:17:15Z</time>
      </trkpt>
      <trkpt lat="36.607060" lon="-118.773010">
        <ele>2171.371</ele>
        <time>2018-12-30T09:17:35Z</time>
      </trkpt>
      <trkpt lat="36.607060" lon="-118.772970">
        <ele>2171.475</ele>
        <time>2018-12-30T09:17:55Z</time>
      </trkpt>
      <trkpt lat="36.607050" lon="-118.772930">
        <ele>2171.225</ele>
        <time>2018-12-30T09:18:15Z</time>
      </trkpt>
      <trkpt lat="36.607050" lon="-118.772880">
        <ele>2171.291</ele>
        <time>2018-12-30T09:18:35Z</time>
      </trkpt>
      <trkpt lat="36.607060" lon="-118.772830">
        <ele>2171.710</ele>
        <time>2018-12-30T09:18:55Z</time>
      </trkpt>
      <trkpt lat="36.607060" lon="-118.772790">
        <ele>2171.774</ele>
        <time>2018-12-30T09:19:15Z</time>
      </trkpt>
      <trkpt lat="36.607060" lon="-118.772750">
        <ele>2171.756</ele>
        <time>2018-12-30T09:19:35Z</time>
      </trkpt>
      <trkpt lat="36.607070" lon="-118.772710">
        <ele>2172.121</ele>
        <time>2018-12-30T09:19:55Z</time>
      </trkpt>
      <trkpt lat="36.607070" lon="-118.772670">
        <ele>2172.208</ele>
        <time>2018-12-30T09:20:15Z</time>
      </trkpt>
      <trkpt lat="36.607080" lon="-118.772610">
        <ele>2172.660</ele>
        <time>2018-12-30T09:20:35Z</time>
      </trkpt>
      <trkpt lat="36.607140" lon="-118.772400">
        <ele>2174.398</ele>
        <time>2018-12-30T09:20:55Z</time>
      </trkpt>
      <trkpt lat="36.607150" lon="-118.772360">
        <ele>2174.553</ele>
        <time>2018-12-30T09:21:15Z</time>
      </trkpt>
      <trkpt lat="36.607150" lon="-118.772320">
        <ele>2173.573</ele>
        <time>2018-12-30T09:21:35Z</time>
      </trkpt>
      <trkpt lat="36.607160" lon="-118.772290">
        <ele>2173.267</ele>
        <time>2018-12-30T09:21:55Z</time>
      </trkpt>
      <trkpt lat="36.607160" lon="-118.772270">
        <ele>2172.787</ele>
        <time>2018-12-30T09:22:15Z</time>
      </trkpt>
      <trkpt lat="36.607170" lon="-118.772240">
        <ele>2172.433</ele>
        <time>2018-12-30T09:22:35Z</time>
      </trkpt>
      <trkpt lat="36.607170" lon="-118.772220">
        <ele>2171.962</ele>
        <time>2018-12-30T09:22:55Z</time>
      </trkpt>
      <trkpt lat="36.607170" lon="-118.772190">
        <ele>2171.284</ele>
        <time>2018-12-30T09:23:15Z</time>
      </trkpt>
      <trkpt lat="36.607170" lon="-118.772160">
        <ele>2170.507</ele>
        <time>2018-12-30T09:23:35Z</time>
      </trkpt>
      <trkpt lat="36.607170" lon="-118.772120">
        <ele>2169.517</ele>
        <time>2018-12-30T09:23:55Z</time>
      </trkpt>
      <trkpt lat="36.607160" lon="-118.772080">
        <ele>2168.108</ele>
        <time>2018-12-30T09:24:15Z</time>
      </trkpt>
      <trkpt lat="36.607160" lon="-118.772040">
        <ele>2167.731</ele>
        <time>2018-12-30T09:24:35Z</time>
      </trkpt>
      <trkpt lat="36.607160" lon="-118.772020">
        <ele>2167.569</ele>
        <time>2018-12-30T09:24:55Z</time>
      </trkpt>
      <trkpt lat="36.607150" lon="-118.772000">
        <ele>2166.844</ele>
        <time>2018-12-30T09:25:15Z</time>
      </trkpt>
      <trkpt lat="36.607140" lon="-118.771970">
        <ele>2166.064</ele>
        <time>2018-12-30T09:25:35Z</time>
      </trkpt>
      <trkpt lat="36.607130" lon="-118.771940">
        <ele>2165.328</ele>
        <time>2018-12-30T09:25:55Z</time>
      </trkpt>
      <trkpt lat="36.607120" lon="-118.771910">
        <ele>2164.628</ele>
        <time>2018-12-30T09:26:15Z</time>
      </trkpt>
      <trkpt lat="36.607110" lon="-118.771870">
        <ele>2163.894</ele>
        <time>2018-12-30T09:26:35Z</time>
      </trkpt>
      <trkpt lat="36.607090" lon="-118.771830">
        <ele>2162.563</ele>
        <time>2018-12-30T09:26:55Z</time>
      </trkpt>
      <trkpt lat="36.607060" lon="-118.771780">
        <ele>2161.954</ele>
        <time>2018-12-30T09:27:15Z</time>
      </trkpt>
      <trkpt lat="36.607050" lon="-118.771760">
        <ele>2162.056</ele>
        <time>2018-12-30T09:27:35Z</time>
      </trkpt>
      <trkpt lat="36.607040" lon="-118.771740">
        <ele>2162.111</ele>
        <time>2018-12-30T09:27:55Z</time>
      </trkpt>
      <trkpt lat="36.607020" lon="-118.771720">
        <ele>2162.008</ele>
        <time>2018-12-30T09:28:15Z</time>
      </trkpt>
      <trkpt lat="36.607010" lon="-118.771690">
        <ele>2162.378</ele>
        <time>2018-12-30T09:28:35Z</time>
      </trkpt>
      <trkpt lat="36.606990" lon="-118.771670">
        <ele>2162.376</ele>
        <time>2018-12-30T09:28:55Z</time>
      </trkpt>
      <trkpt lat="36.606970" lon="-118.771650">
        <ele>2162.321</ele>
        <time>2018-12-30T09:29:15Z</time>
      </trkpt>
      <trkpt lat="36.606950" lon="-118.771620">
        <ele>2162.571</ele>
        <time>2018-12-30T09:29:35Z</time>
      </trkpt>
      <trkpt lat="36.606910" lon="-118.771590">
        <ele>2162.565</ele>
        <time>2018-12-30T09:29:55Z</time>
      </trkpt>
      <trkpt lat="36.606860" lon="-118.771550">
        <ele>2162.635</ele>
        <time>2018-12-30T09:30:15Z</time>
      </trkpt>
      <trkpt lat="36.606590" lon="-118.771370">
        <ele>2163.921</ele>
        <time>2018-12-30T09:30:35Z</time>
      </trkpt>
      <trkpt lat="36.606120" lon="-118.771060">
        <ele>2162.560</ele>
        <time>2018-12-30T09:30:55Z</time>
      </trkpt>
      <trkpt lat="36.606010" lon="-118.770990">
        <ele>2160.528</ele>
        <time>2018-12-30T09:31:15Z</time>
      </trkpt>
      <trkpt lat="36.605950" lon="-118.770950">
        <ele>2160.189</ele>
        <time>2018-12-30T09:31:35Z</time>
      </trkpt>
      <trkpt lat="36.605900" lon="-118.770920">
        <ele>2160.517</ele>
        <time>2018-12-30T09:31:55Z</time>
      </trkpt>
      <trkpt lat="36.605870" lon="-118.770890">
        <ele>2161.008</ele>
        <time>2018-12-30T09:32:15Z</time>
      </trkpt>
      <trkpt lat="36.605840" lon="-118.770860">
        <ele>2161.455</ele>
        <time>2018-12-30T09:32:35Z</time>
      </trkpt>
      <trkpt lat="36.605790" lon="-118.770810">
        <ele>2162.053</ele>
        <time>2018-12-30T09:32:55Z</time>
      </trkpt>
      <trkpt lat="36.605740" lon="-118.770770">
        <ele>2162.478</ele>
        <time>2018-12-30T09:33:15Z</time>
      </trkpt>
      <trkpt lat="36.605700" lon="-118.770730">
        <ele>2162.858</ele>
        <time>2018-12-30T09:33:35Z</time>
      </trkpt>
      <trkpt lat="36.605650" lon="-118.770670">
        <ele>2163.342</ele>
        <time>2018-12-30T09:33:55Z</time>
      </trkpt>
      <trkpt lat="36.605600" lon="-118.770610">
        <ele>2163.432</ele>
        <time>2018-12-30T09:34:15Z</time>
      </trkpt>
      <trkpt lat="36.605560" lon="-118.770560">
        <ele>2163.328</ele>
        <time>2018-12-30T09:34:35Z</time>
      </trkpt>
      <trkpt lat="36.605520" lon="-118.770510">
        <ele>2163.167</ele>
        <time>2018-12-30T09:34:55Z</time>
      </trkpt>
      <trkpt lat="36.605480" lon="-118.770450">
        <ele>2162.798</ele>
        <time>2018-12-30T09:35:15Z</time>
      </trkpt>
      <trkpt lat="36.605450" lon="-118.770400">
        <ele>2162.315</ele>
        <time>2018-12-30T09:35:35Z</time>
      </trkpt>
      <trkpt lat="36.605420" lon="-118.770330">
        <ele>2161.926</ele>
        <time>2018-12-30T09:35:55Z</time>
      </trkpt>
      <trkpt lat="36.605340" lon="-118.770180">
        <ele>2159.908</ele>
        <time>2018-12-30T09:36:15Z</time>
      </trkpt>
      <trkpt lat="36.605310" lon="-118.770130">
        <ele>2159.212</ele>
        <time>2018-12-30T09:36:35Z</time>
      </trkpt>
      <trkpt lat="36.605280" lon="-118.770060">
        <ele>2159.120</ele>
        <time>2018-12-30T09:36:55Z</time>
      </trkpt>
      <trkpt lat="36.605260" lon="-118.769980">
        <ele>2159.515</ele>
        <time>2018-12-30T09:37:15Z</time>
      </trkpt>
      <trkpt lat="36.605230" lon="-118.769900">
        <ele>2159.885</ele>
        <time>2018-12-30T09:37:35Z</time>
      </trkpt>
      <trkpt lat="36.605210" lon="-118.769830">
        <ele>2160.119</ele>
        <time>2018-12-30T09:37:55Z</time>
      </trkpt>
      <trkpt lat="36.605180" lon="-118.769720">
        <ele>2160.279</ele>
        <time>2018-12-30T09:38:15Z</time>
      </trkpt>
      <trkpt lat="36.605160" lon="-118.769620">
        <ele>2160.435</ele>
        <time>2018-12-30T09:38:35Z</time>
      </trkpt>
      <trkpt lat="36.605140" lon="-118.769550">
        <ele>2160.124</ele>
        <time>2018-12-30T09:38:55Z</time>
      </trkpt>
      <trkpt lat="36.605130" lon="-118.769470">
        <ele>2159.976</ele>
        <time>2018-12-30T09:39:15Z</time>
      </trkpt>
      <trkpt lat="36.605120" lon="-118.769410">
        <ele>2159.790</ele>
        <time>2018-12-30T09:39:35Z</time>
      </trkpt>
      <trkpt lat="36.605110" lon="-118.769320">
        <ele>2159.419</ele>
        <time>2018-12-30T09:39:55Z</time>
      </trkpt>
      <trkpt lat="36.605110" lon="-118.769260">
        <ele>2159.408</ele>
        <time>2018-12-30T09:40:15Z</time>
      </trkpt>
      <trkpt lat="36.605100" lon="-118.769210">
        <ele>2159.120</ele>
        <time>2018-12-30T09:40:35Z</time>
      </trkpt>
      <trkpt lat="36.605100" lon="-118.769160">
        <ele>2159.168</ele>
        <time>2018-12-30T09:40:55Z</time>
      </trkpt>
      <trkpt lat="36.605100" lon="-118.769120">
        <ele>2159.173</ele>
        <time>2018-12-30T09:41:15Z</time>
      </trkpt>
      <trkpt lat="36.605100" lon="-118.769070">
        <ele>2159.143</ele>
        <time>2018-12-30T09:41:35Z</time>
      </trkpt>
      <trkpt lat="36.605110" lon="-118.769000">
        <ele>2159.487</ele>
        <time>2018-12-30T09:41:55Z</time>
      </trkpt>
      <trkpt lat="36.605120" lon="-118.768900">
        <ele>2159.697</ele>
        <time>2018-12-30T09:42:15Z</time>
      </trkpt>
      <trkpt lat="36.605140" lon="-118.768700">
        <ele>2160.013</ele>
        <time>2018-12-30T09:42:35Z</time>
      </trkpt>
      <trkpt lat="36.605250" lon="-118.767820">
        <ele>2159.852</ele>
        <time>2018-12-30T09:42:55Z</time>
      </trkpt>
      <trkpt lat="36.605320" lon="-118.767360">
        <ele>2159.584</ele>
        <time>2018-12-30T09:43:15Z</time>
      </trkpt>
      <trkpt lat="36.605320" lon="-118.767120">
        <ele>2157.807</ele>
        <time>2018-12-30T09:43:35Z</time>
      </trkpt>
      <trkpt lat="36.605380" lon="-118.766590">
        <ele>2156.117</ele>
        <time>2018-12-30T09:43:55Z</time>
      </trkpt>
      <trkpt lat="36.605400" lon="-118.766390">
        <ele>2155.608</ele>
        <time>2018-12-30T09:44:15Z</time>
      </trkpt>
      <trkpt lat="36.605400" lon="-118.766300">
        <ele>2155.311</ele>
        <time>2018-12-30T09:44:35Z</time>
      </trkpt>
      <trkpt lat="36.605400" lon="-118.766200">
        <ele>2154.889</ele>
        <time>2018-12-30T09:44:55Z</time>
      </trkpt>
      <trkpt lat="36.605390" lon="-118.766060">
        <ele>2153.754</ele>
        <time>2018-12-30T09:45:15Z</time>
      </trkpt>
      <trkpt lat="36.605350" lon="-118.765780">
        <ele>2151.674</ele>
        <time>2018-12-30T09:45:35Z</time>
      </trkpt>
      <trkpt lat="36.605290" lon="-118.765630">
        <ele>2150.968</ele>
        <time>2018-12-30T09:45:55Z</time>
      </trkpt>
      <trkpt lat="36.605210" lon="-118.765440">
        <ele>2150.718</ele>
        <time>2018-12-30T09:46:15Z</time>
      </trkpt>
      <trkpt lat="36.605100" lon="-118.765260">
        <ele>2150.964</ele>
        <time>2018-12-30T09:46:35Z</time>
      </trkpt>
      <trkpt lat="36.605020" lon="-118.765140">
        <ele>2151.113</ele>
        <time>2018-12-30T09:46:55Z</time>
      </trkpt>
      <trkpt lat="36.604870" lon="-118.764890">
        <ele>2152.097</ele>
        <time>2018-12-30T09:47:15Z</time>
      </trkpt>
      <trkpt lat="36.604820" lon="-118.764800">
        <ele>2152.323</ele>
        <time>2018-12-30T09:47:35Z</time>
      </trkpt>
      <trkpt lat="36.604700" lon="-118.764600">
        <ele>2152.625</ele>
        <time>2018-12-30T09:47:55Z</time>
      </trkpt>
      <trkpt lat="36.604560" lon="-118.764370">
        <ele>2152.008</ele>
        <time>2018-12-30T09:48:15Z</time>
      </trkpt>
      <trkpt lat="36.604520" lon="-118.764310">
        <ele>2151.942</ele>
        <time>2018-12-30T09:48:35Z</time>
      </trkpt>
      <trkpt lat="36.604500" lon="-118.764270">
        <ele>2151.820</ele>
        <time>2018-12-30T09:48:55Z</time>
      </trkpt>
      <trkpt lat="36.604480" lon="-118.764230">
        <ele>2151.715</ele>
        <time>2018-12-30T09:49:15Z</time>
      </trkpt>
      <trkpt lat="36.604440" lon="-118.764160">
        <ele>2151.325</ele>
        <time>2018-12-30T09:49:35Z</time>
      </trkpt>
      <trkpt lat="36.604400" lon="-118.764090">
        <ele>2151.079</ele>
        <time>2018-12-30T09:49:55Z</time>
      </trkpt>
      <trkpt lat="36.604370" lon="-118.764030">
        <ele>2150.649</ele>
        <time>2018-12-30T09:50:15Z</time>
      </trkpt>
      <trkpt lat="36.604330" lon="-118.763930">
        <ele>2150.085</ele>
        <time>2018-12-30T09:50:35Z</time>
      </trkpt>
      <trkpt lat="36.604270" lon="-118.763810">
        <ele>2148.814</ele>
        <time>2018-12-30T09:50:55Z</time>
      </trkpt>
      <trkpt lat="36.604210" lon="-118.763660">
        <ele>2147.643</ele>
        <time>2018-12-30T09:51:15Z</time>
      </trkpt>
      <trkpt lat="36.604200" lon="-118.763650">
        <ele>2147.464</ele>
        <time>2018-12-30T09:51:35Z</time>
      </trkpt>
      <trkpt lat="36.604150" lon="-118.763520">
        <ele>2146.610</ele>
        <time>2018-12-30T09:51:55Z</time>
      </trkpt>
      <trkpt lat="36.604100" lon="-118.763400">
        <ele>2146.008</ele>
        <time>2018-12-30T09:52:15Z</time>
      </trkpt>
      <trkpt lat="36.604070" lon="-118.763290">
        <ele>2146.067</ele>
        <time>2018-12-30T09:52:35Z</time>
      </trkpt>
      <trkpt lat="36.604030" lon="-118.763200">
        <ele>2145.665</ele>
        <time>2018-12-30T09:52:55Z</time>
      </trkpt>
      <trkpt lat="36.604010" lon="-118.763110">
        <ele>2145.570</ele>
        <time>2018-12-30T09:53:15Z</time>
      </trkpt>
      <trkpt lat="36.603970" lon="-118.762980">
        <ele>2144.820</ele>
        <time>2018-12-30T09:53:35Z</time>
      </trkpt>
      <trkpt lat="36.603950" lon="-118.762880">
        <ele>2144.274</ele>
        <time>2018-12-30T09:53:55Z</time>
      </trkpt>
      <trkpt lat="36.603940" lon="-118.762780">
        <ele>2143.364</ele>
        <time>2018-12-30T09:54:15Z</time>
      </trkpt>
      <trkpt lat="36.603930" lon="-118.762680">
        <ele>2142.570</ele>
        <time>2018-12-30T09:54:35Z</time>
      </trkpt>
      <trkpt lat="36.603930" lon="-118.762580">
        <ele>2142.139</ele>
        <time>2018-12-30T09:54:55Z</time>
      </trkpt>
      <trkpt lat="36.603930" lon="-118.762460">
        <ele>2141.588</ele>
        <time>2018-12-30T09:55:15Z</time>
      </trkpt>
      <trkpt lat="36.603930" lon="-118.762370">
        <ele>2141.124</ele>
        <time>2018-12-30T09:55:35Z</time>
      </trkpt>
      <trkpt lat="36.603930" lon="-118.762310">
        <ele>2141.126</ele>
        <time>2018-12-30T09:55:55Z</time>
      </trkpt>
      <trkpt lat="36.603940" lon="-118.762260">
        <ele>2141.308</ele>
        <time>2018-12-30T09:56:15Z</time>
      </trkpt>
      <trkpt lat="36.603950" lon="-118.762190">
        <ele>2141.531</ele>
        <time>2018-12-30T09:56:35Z</time>
      </trkpt>
      <trkpt lat="36.603960" lon="-118.762120">
        <ele>2141.619</ele>
        <time>2018-12-30T09:56:55Z</time>
      </trkpt>
      <trkpt lat="36.603980" lon="-118.762030">
        <ele>2141.974</ele>
        <time>2018-12-30T09:57:15Z</time>
      </trkpt>
      <trkpt lat="36.604000" lon="-118.761950">
        <ele>2142.194</ele>
        <time>2018-12-30T09:57:35Z</time>
      </trkpt>
      <trkpt lat="36.604010" lon="-118.761900">
        <ele>2142.158</ele>
        <time>2018-12-30T09:57:55Z</time>
      </trkpt>
      <trkpt lat="36.604030" lon="-118.761850">
        <ele>2142.448</ele>
        <time>2018-12-30T09:58:15Z</time>
      </trkpt>
      <trkpt lat="36.604060" lon="-118.761770">
        <ele>2142.994</ele>
        <time>2018-12-30T09:58:35Z</time>
      </trkpt>
      <trkpt lat="36.604110" lon="-118.761660">
        <ele>2143.493</ele>
        <time>2018-12-30T09:58:55Z</time>
      </trkpt>
      <trkpt lat="36.604150" lon="-118.761570">
        <ele>2143.748</ele>
        <time>2018-12-30T09:59:15Z</time>
      </trkpt>
      <trkpt lat="36.604160" lon="-118.761530">
        <ele>2143.661</ele>
        <time>2018-12-30T09:59:35Z</time>
      </trkpt>
      <trkpt lat="36.604180" lon="-118.761460">
        <ele>2143.517</ele>
        <time>2018-12-30T09:59:55Z</time>
      </trkpt>
      <trkpt lat="36.604210" lon="-118.761380">
        <ele>2143.508</ele>
        <time>2018-12-30T10:00:15Z</time>
      </trkpt>
      <trkpt lat="36.604230" lon="-118.761320">
        <ele>2143.467</ele>
        <time>2018-12-30T10:00:35Z</time>
      </trkpt>
      <trkpt lat="36.604270" lon="-118.761170">
        <ele>2142.815</ele>
        <time>2018-12-30T10:00:55Z</time>
      </trkpt>
      <trkpt lat="36.604280" lon="-118.761080">
        <ele>2142.120</ele>
        <time>2018-12-30T10:01:15Z</time>
      </trkpt>
      <trkpt lat="36.604300" lon="-118.760990">
        <ele>2141.570</ele>
        <time>2018-12-30T10:01:35Z</time>
      </trkpt>
      <trkpt lat="36.604310" lon="-118.760850">
        <ele>2140.244</ele>
        <time>2018-12-30T10:01:55Z</time>
      </trkpt>
      <trkpt lat="36.604320" lon="-118.760670">
        <ele>2138.534</ele>
        <time>2018-12-30T10:02:15Z</time>
      </trkpt>
      <trkpt lat="36.604320" lon="-118.760470">
        <ele>2137.040</ele>
        <time>2018-12-30T10:02:35Z</time>
      </trkpt>
      <trkpt lat="36.604320" lon="-118.760310">
        <ele>2136.219</ele>
        <time>2018-12-30T10:02:55Z</time>
      </trkpt>
      <trkpt lat="36.604330" lon="-118.760140">
        <ele>2135.873</ele>
        <time>2018-12-30T10:03:15Z</time>
      </trkpt>
      <trkpt lat="36.604330" lon="-118.759990">
        <ele>2135.385</ele>
        <time>2018-12-30T10:03:35Z</time>
      </trkpt>
      <trkpt lat="36.604330" lon="-118.759630">
        <ele>2133.613</ele>
        <time>2018-12-30T10:03:55Z</time>
      </trkpt>
      <trkpt lat="36.604320" lon="-118.759150">
        <ele>2129.708</ele>
        <time>2018-12-30T10:04:15Z</time>
      </trkpt>
      <trkpt lat="36.604320" lon="-118.758690">
        <ele>2127.280</ele>
        <time>2018-12-30T10:04:35Z</time>
      </trkpt>
      <trkpt lat="36.604320" lon="-118.758620">
        <ele>2126.918</ele>
        <time>2018-12-30T10:04:55Z</time>
      </trkpt>
      <trkpt lat="36.604310" lon="-118.758030">
        <ele>2125.033</ele>
        <time>2018-12-30T10:05:15Z</time>
      </trkpt>
      <trkpt lat="36.604310" lon="-118.757710">
        <ele>2124.363</ele>
        <time>2018-12-30T10:05:35Z</time>
      </trkpt>
      <trkpt lat="36.604310" lon="-118.757520">
        <ele>2124.117</ele>
        <time>2018-12-30T10:05:55Z</time>
      </trkpt>
      <trkpt lat="36.604310" lon="-118.757400">
        <ele>2123.937</ele>
        <time>2018-12-30T10:06:15Z</time>
      </trkpt>
      <trkpt lat="36.604300" lon="-118.757340">
        <ele>2123.553</ele>
        <time>2018-12-30T10:06:35Z</time>
      </trkpt>
      <trkpt lat="36.604320" lon="-118.757300">
        <ele>2123.922</ele>
        <time>2018-12-30T10:06:55Z</time>
      </trkpt>
      <trkpt lat="36.604310" lon="-118.757250">
        <ele>2123.498</ele>
        <time>2018-12-30T10:07:15Z</time>
      </trkpt>
      <trkpt lat="36.604300" lon="-118.757140">
        <ele>2122.615</ele>
        <time>2018-12-30T10:07:35Z</time>
      </trkpt>
      <trkpt lat="36.604290" lon="-118.757020">
        <ele>2121.426</ele>
        <time>2018-12-30T10:07:55Z</time>
      </trkpt>
      <trkpt lat="36.604280" lon="-118.756940">
        <ele>2120.408</ele>
        <time>2018-12-30T10:08:15Z</time>
      </trkpt>
      <trkpt lat="36.604260" lon="-118.756830">
        <ele>2118.992</ele>
        <time>2018-12-30T10:08:35Z</time>
      </trkpt>
      <trkpt lat="36.604230" lon="-118.756720">
        <ele>2118.020</ele>
        <time>2018-12-30T10:08:55Z</time>
      </trkpt>
      <trkpt lat="36.604210" lon="-118.756630">
        <ele>2117.595</ele>
        <time>2018-12-30T10:09:15Z</time>
      </trkpt>
      <trkpt lat="36.604190" lon="-118.756550">
        <ele>2117.055</ele>
        <time>2018-12-30T10:09:35Z</time>
      </trkpt>
      <trkpt lat="36.604160" lon="-118.756470">
        <ele>2116.419</ele>
        <time>2018-12-30T10:09:55Z</time>
      </trkpt>
      <trkpt lat="36.604130" lon="-118.756380">
        <ele>2115.989</ele>
        <time>2018-12-30T10:10:15Z</time>
      </trkpt>
      <trkpt lat="36.604090" lon="-118.756290">
        <ele>2115.295</ele>
        <time>2018-12-30T10:10:35Z</time>
      </trkpt>
      <trkpt lat="36.604040" lon="-118.756160">
        <ele>2114.824</ele>
        <time>2018-12-30T10:10:55Z</time>
      </trkpt>
      <trkpt lat="36.603890" lon="-118.755830">
        <ele>2113.979</ele>
        <time>2018-12-30T10:11:15Z</time>
      </trkpt>
      <trkpt lat="36.603860" lon="-118.755750">
        <ele>2113.705</ele>
        <time>2018-12-30T10:11:35Z</time>
      </trkpt>
      <trkpt lat="36.603790" lon="-118.755600">
        <ele>2113.025</ele>
        <time>2018-12-30T10:11:55Z</time>
      </trkpt>
      <trkpt lat="36.603750" lon="-118.755490">
        <ele>2112.808</ele>
        <time>2018-12-30T10:12:15Z</time>
      </trkpt>
      <trkpt lat="36.603720" lon="-118.755400">
        <ele>2112.490</ele>
        <time>2018-12-30T10:12:35Z</time>
      </trkpt>
      <trkpt lat="36.603700" lon="-118.755330">
        <ele>2111.978</ele>
        <time>2018-12-30T10:12:55Z</time>
      </trkpt>
      <trkpt lat="36.603680" lon="-118.755250">
        <ele>2111.553</ele>
        <time>2018-12-30T10:13:15Z</time>
      </trkpt>
      <trkpt lat="36.603660" lon="-118.755170">
        <ele>2111.143</ele>
        <time>2018-12-30T10:13:35Z</time>
      </trkpt>
      <trkpt lat="36.603650" lon="-118.755110">
        <ele>2110.877</ele>
        <time>2018-12-30T10:13:55Z</time>
      </trkpt>
      <trkpt lat="36.603640" lon="-118.755030">
        <ele>2110.517</ele>
        <time>2018-12-30T10:14:15Z</time>
      </trkpt>
      <trkpt lat="36.603630" lon="-118.754960">
        <ele>2110.123</ele>
        <time>2018-12-30T10:14:35Z</time>
      </trkpt>
      <trkpt lat="36.603620" lon="-118.754900">
        <ele>2109.852</ele>
        <time>2018-12-30T10:14:55Z</time>
      </trkpt>
      <trkpt lat="36.603620" lon="-118.754840">
        <ele>2109.796</ele>
        <time>2018-12-30T10:15:15Z</time>
      </trkpt>
      <trkpt lat="36.603620" lon="-118.754750">
        <ele>2109.331</ele>
        <time>2018-12-30T10:15:35Z</time>
      </trkpt>
      <trkpt lat="36.603610" lon="-118.754680">
        <ele>2108.824</ele>
        <time>2018-12-30T10:15:55Z</time>
      </trkpt>
      <trkpt lat="36.603610" lon="-118.754620">
        <ele>2108.608</ele>
        <time>2018-12-30T10:16:15Z</time>
      </trkpt>
      <trkpt lat="36.603620" lon="-118.754550">
        <ele>2108.312</ele>
        <time>2018-12-30T10:16:35Z</time>
      </trkpt>
      <trkpt lat="36.603620" lon="-118.754490">
        <ele>2107.720</ele>
        <time>2018-12-30T10:16:55Z</time>
      </trkpt>
      <trkpt lat="36.603630" lon="-118.754440">
        <ele>2107.465</ele>
        <time>2018-12-30T10:17:15Z</time>
      </trkpt>
      <trkpt lat="36.603640" lon="-118.754380">
        <ele>2107.035</ele>
        <time>2018-12-30T10:17:35Z</time>
      </trkpt>
      <trkpt lat="36.603660" lon="-118.754160">
        <ele>2105.919</ele>
        <time>2018-12-30T10:17:55Z</time>
      </trkpt>
      <trkpt lat="36.603710" lon="-118.753840">
        <ele>2105.599</ele>
        <time>2018-12-30T10:18:15Z</time>
      </trkpt>
      <trkpt lat="36.603820" lon="-118.753070">
        <ele>2101.855</ele>
        <time>2018-12-30T10:18:35Z</time>
      </trkpt>
      <trkpt lat="36.603840" lon="-118.752930">
        <ele>2101.584</ele>
        <time>2018-12-30T10:18:55Z</time>
      </trkpt>
      <trkpt lat="36.603860" lon="-118.752810">
        <ele>2101.227</ele>
        <time>2018-12-30T10:19:15Z</time>
      </trkpt>
      <trkpt lat="36.603870" lon="-118.752730">
        <ele>2101.068</ele>
        <time>2018-12-30T10:19:35Z</time>
      </trkpt>
      <trkpt lat="36.603890" lon="-118.752600">
        <ele>2100.614</ele>
        <time>2018-12-30T10:19:55Z</time>
      </trkpt>
      <trkpt lat="36.603900" lon="-118.752490">
        <ele>2100.108</ele>
        <time>2018-12-30T10:20:15Z</time>
      </trkpt>
      <trkpt lat="36.603920" lon="-118.752390">
        <ele>2099.965</ele>
        <time>2018-12-30T10:20:35Z</time>
      </trkpt>
      <trkpt lat="36.603930" lon="-118.752320">
        <ele>2099.593</ele>
        <time>2018-12-30T10:20:55Z</time>
      </trkpt>
      <trkpt lat="36.603940" lon="-118.752200">
        <ele>2098.588</ele>
        <time>2018-12-30T10:21:15Z</time>
      </trkpt>
      <trkpt lat="36.603980" lon="-118.751970">
        <ele>2096.878</ele>
        <time>2018-12-30T10:21:35Z</time>
      </trkpt>
      <trkpt lat="36.604000" lon="-118.751830">
        <ele>2095.152</ele>
        <time>2018-12-30T10:21:55Z</time>
      </trkpt>
      <trkpt lat="36.604060" lon="-118.751440">
        <ele>2092.722</ele>
        <time>2018-12-30T10:22:15Z</time>
      </trkpt>
      <trkpt lat="36.604090" lon="-118.751210">
        <ele>2091.018</ele>
        <time>2018-12-30T10:22:35Z</time>
      </trkpt>
      <trkpt lat="36.604110" lon="-118.751120">
        <ele>2090.567</ele>
        <time>2018-12-30T10:22:55Z</time>
      </trkpt>
      <trkpt lat="36.604130" lon="-118.751010">
        <ele>2089.918</ele>
        <time>2018-12-30T10:23:15Z</time>
      </trkpt>
      <trkpt lat="36.604150" lon="-118.750920">
        <ele>2089.698</ele>
        <time>2018-12-30T10:23:35Z</time>
      </trkpt>
      <trkpt lat="36.604180" lon="-118.750820">
        <ele>2089.417</ele>
        <time>2018-12-30T10:23:55Z</time>
      </trkpt>
      <trkpt lat="36.604210" lon="-118.750730">
        <ele>2089.308</ele>
        <time>2018-12-30T10:24:15Z</time>
      </trkpt>
      <trkpt lat="36.604240" lon="-118.750630">
        <ele>2089.334</ele>
        <time>2018-12-30T10:24:35Z</time>
      </trkpt>
      <trkpt lat="36.604260" lon="-118.750570">
        <ele>2089.332</ele>
        <time>2018-12-30T10:24:55Z</time>
      </trkpt>
      <trkpt lat="36.604280" lon="-118.750510">
        <ele>2089.227</ele>
        <time>2018-12-30T10:25:15Z</time>
      </trkpt>
      <trkpt lat="36.604310" lon="-118.750450">
        <ele>2089.197</ele>
        <time>2018-12-30T10:25:35Z</time>
      </trkpt>
      <trkpt lat="36.604340" lon="-118.750390">
        <ele>2088.391</ele>
        <time>2018-12-30T10:25:55Z</time>
      </trkpt>
      <trkpt lat="36.604370" lon="-118.750320">
        <ele>2087.181</ele>
        <time>2018-12-30T10:26:15Z</time>
      </trkpt>
      <trkpt lat="36.604400" lon="-118.750260">
        <ele>2086.197</ele>
        <time>2018-12-30T10:26:35Z</time>
      </trkpt>
      <trkpt lat="36.604440" lon="-118.750200">
        <ele>2084.976</ele>
        <time>2018-12-30T10:26:55Z</time>
      </trkpt>
      <trkpt lat="36.604470" lon="-118.750140">
        <ele>2083.934</ele>
        <time>2018-12-30T10:27:15Z</time>
      </trkpt>
      <trkpt lat="36.604510" lon="-118.750080">
        <ele>2083.355</ele>
        <time>2018-12-30T10:27:35Z</time>
      </trkpt>
      <trkpt lat="36.604550" lon="-118.750020">
        <ele>2082.710</ele>
        <time>2018-12-30T10:27:55Z</time>
      </trkpt>
      <trkpt lat="36.604600" lon="-118.749940">
        <ele>2082.108</ele>
        <time>2018-12-30T10:28:15Z</time>
      </trkpt>
      <trkpt lat="36.604640" lon="-118.749890">
        <ele>2081.886</ele>
        <time>2018-12-30T10:28:35Z</time>
      </trkpt>
      <trkpt lat="36.604670" lon="-118.749850">
        <ele>2081.554</ele>
        <time>2018-12-30T10:28:55Z</time>
      </trkpt>
      <trkpt lat="36.604710" lon="-118.749810">
        <ele>2081.149</ele>
        <time>2018-12-30T10:29:15Z</time>
      </trkpt>
      <trkpt lat="36.604740" lon="-118.749770">
        <ele>2080.649</ele>
        <time>2018-12-30T10:29:35Z</time>
      </trkpt>
      <trkpt lat="36.604780" lon="-118.749730">
        <ele>2080.193</ele>
        <time>2018-12-30T10:29:55Z</time>
      </trkpt>
      <trkpt lat="36.604820" lon="-118.749680">
        <ele>2079.453</ele>
        <time>2018-12-30T10:30:15Z</time>
      </trkpt>
      <trkpt lat="36.604860" lon="-118.749640">
        <ele>2078.699</ele>
        <time>2018-12-30T10:30:35Z</time>
      </trkpt>
      <trkpt lat="36.604900" lon="-118.749600">
        <ele>2078.478</ele>
        <time>2018-12-30T10:30:55Z</time>
      </trkpt>
      <trkpt lat="36.604970" lon="-118.749540">
        <ele>2077.746</ele>
        <time>2018-12-30T10:31:15Z</time>
      </trkpt>
      <trkpt lat="36.605010" lon="-118.749500">
        <ele>2077.288</ele>
        <time>2018-12-30T10:31:35Z</time>
      </trkpt>
      <trkpt lat="36.605050" lon="-118.749460">
        <ele>2076.616</ele>
        <time>2018-12-30T10:31:55Z</time>
      </trkpt>
      <trkpt lat="36.605070" lon="-118.749440">
        <ele>2076.308</ele>
        <time>2018-12-30T10:32:15Z</time>
      </trkpt>
      <trkpt lat="36.605340" lon="-118.749200">
        <ele>2073.627</ele>
        <time>2018-12-30T10:32:35Z</time>
      </trkpt>
      <trkpt lat="36.605540" lon="-118.749030">
        <ele>2072.265</ele>
        <time>2018-12-30T10:32:55Z</time>
      </trkpt>
      <trkpt lat="36.605720" lon="-118.748870">
        <ele>2070.630</ele>
        <time>2018-12-30T10:33:15Z</time>
      </trkpt>
      <trkpt lat="36.606040" lon="-118.748590">
        <ele>2070.940</ele>
        <time>2018-12-30T10:33:35Z</time>
      </trkpt>
      <trkpt lat="36.606530" lon="-118.748170">
        <ele>2070.864</ele>
        <time>2018-12-30T10:33:55Z</time>
      </trkpt>
      <trkpt lat="36.606850" lon="-118.747880">
        <ele>2070.554</ele>
        <time>2018-12-30T10:34:15Z</time>
      </trkpt>
      <trkpt lat="36.606900" lon="-118.747830">
        <ele>2070.050</ele>
        <time>2018-12-30T10:34:35Z</time>
      </trkpt>
      <trkpt lat="36.606940" lon="-118.747790">
        <ele>2069.699</ele>
        <time>2018-12-30T10:34:55Z</time>
      </trkpt>
      <trkpt lat="36.606980" lon="-118.747750">
        <ele>2069.232</ele>
        <time>2018-12-30T10:35:15Z</time>
      </trkpt>
      <trkpt lat="36.607020" lon="-118.747700">
        <ele>2068.492</ele>
        <time>2018-12-30T10:35:35Z</time>
      </trkpt>
      <trkpt lat="36.607050" lon="-118.747670">
        <ele>2068.111</ele>
        <time>2018-12-30T10:35:55Z</time>
      </trkpt>
      <trkpt lat="36.607090" lon="-118.747620">
        <ele>2067.108</ele>
        <time>2018-12-30T10:36:15Z</time>
      </trkpt>
      <trkpt lat="36.607110" lon="-118.747580">
        <ele>2065.986</ele>
        <time>2018-12-30T10:36:35Z</time>
      </trkpt>
      <trkpt lat="36.607140" lon="-118.747540">
        <ele>2064.544</ele>
        <time>2018-12-30T10:36:55Z</time>
      </trkpt>
      <trkpt lat="36.607150" lon="-118.747500">
        <ele>2063.449</ele>
        <time>2018-12-30T10:37:15Z</time>
      </trkpt>
      <trkpt lat="36.607170" lon="-118.747460">
        <ele>2062.139</ele>
        <time>2018-12-30T10:37:35Z</time>
      </trkpt>
      <trkpt lat="36.607180" lon="-118.747420">
        <ele>2060.943</ele>
        <time>2018-12-30T10:37:55Z</time>
      </trkpt>
      <trkpt lat="36.607200" lon="-118.747380">
        <ele>2059.753</ele>
        <time>2018-12-30T10:38:15Z</time>
      </trkpt>
      <trkpt lat="36.607210" lon="-118.747340">
        <ele>2058.899</ele>
        <time>2018-12-30T10:38:35Z</time>
      </trkpt>
      <trkpt lat="36.607220" lon="-118.747310">
        <ele>2058.548</ele>
        <time>2018-12-30T10:38:55Z</time>
      </trkpt>
      <trkpt lat="36.607220" lon="-118.747270">
        <ele>2058.254</ele>
        <time>2018-12-30T10:39:15Z</time>
      </trkpt>
      <trkpt lat="36.607240" lon="-118.747180">
        <ele>2057.756</ele>
        <time>2018-12-30T10:39:35Z</time>
      </trkpt>
      <trkpt lat="36.607240" lon="-118.747120">
        <ele>2057.411</ele>
        <time>2018-12-30T10:39:55Z</time>
      </trkpt>
      <trkpt lat="36.607250" lon="-118.747050">
        <ele>2057.908</ele>
        <time>2018-12-30T10:40:15Z</time>
      </trkpt>
      <trkpt lat="36.607250" lon="-118.746980">
        <ele>2058.718</ele>
        <time>2018-12-30T10:40:35Z</time>
      </trkpt>
      <trkpt lat="36.607250" lon="-118.746910">
        <ele>2059.576</ele>
        <time>2018-12-30T10:40:55Z</time>
      </trkpt>
      <trkpt lat="36.607250" lon="-118.746850">
        <ele>2060.191</ele>
        <time>2018-12-30T10:41:15Z</time>
      </trkpt>
      <trkpt lat="36.607240" lon="-118.746790">
        <ele>2060.671</ele>
        <time>2018-12-30T10:41:35Z</time>
      </trkpt>
      <trkpt lat="36.607240" lon="-118.746750">
        <ele>2061.255</ele>
        <time>2018-12-30T10:41:55Z</time>
      </trkpt>
      <trkpt lat="36.607230" lon="-118.746720">
        <ele>2061.415</ele>
        <time>2018-12-30T10:42:15Z</time>
      </trkpt>
      <trkpt lat="36.607220" lon="-118.746680">
        <ele>2061.691</ele>
        <time>2018-12-30T10:42:35Z</time>
      </trkpt>
      <trkpt lat="36.607210" lon="-118.746650">
        <ele>2061.790</ele>
        <time>2018-12-30T10:42:55Z</time>
      </trkpt>
      <trkpt lat="36.607200" lon="-118.746620">
        <ele>2061.837</ele>
        <time>2018-12-30T10:43:15Z</time>
      </trkpt>
      <trkpt lat="36.607190" lon="-118.746590">
        <ele>2061.949</ele>
        <time>2018-12-30T10:43:35Z</time>
      </trkpt>
      <trkpt lat="36.607180" lon="-118.746560">
        <ele>2062.013</ele>
        <time>2018-12-30T10:43:55Z</time>
      </trkpt>
      <trkpt lat="36.607150" lon="-118.746490">
        <ele>2061.908</ele>
        <time>2018-12-30T10:44:15Z</time>
      </trkpt>
      <trkpt lat="36.607110" lon="-118.746410">
        <ele>2061.256</ele>
        <time>2018-12-30T10:44:35Z</time>
      </trkpt>
      <trkpt lat="36.607080" lon="-118.746360">
        <ele>2060.534</ele>
        <time>2018-12-30T10:44:55Z</time>
      </trkpt>
      <trkpt lat="36.606990" lon="-118.746190">
        <ele>2060.929</ele>
        <time>2018-12-30T10:45:15Z</time>
      </trkpt>
      <trkpt lat="36.606820" lon="-118.745850">
        <ele>2060.759</ele>
        <time>2018-12-30T10:45:35Z</time>
      </trkpt>
      <trkpt lat="36.606650" lon="-118.745510">
        <ele>2060.383</ele>
        <time>2018-12-30T10:45:55Z</time>
      </trkpt>
      <trkpt lat="36.606450" lon="-118.745120">
        <ele>2060.253</ele>
        <time>2018-12-30T10:46:15Z</time>
      </trkpt>
      <trkpt lat="36.606210" lon="-118.744620">
        <ele>2058.789</ele>
        <time>2018-12-30T10:46:35Z</time>
      </trkpt>
      <trkpt lat="36.606030" lon="-118.744280">
        <ele>2056.738</ele>
        <time>2018-12-30T10:46:55Z</time>
      </trkpt>
      <trkpt lat="36.605950" lon="-118.744110">
        <ele>2056.095</ele>
        <time>2018-12-30T10:47:15Z</time>
      </trkpt>
      <trkpt lat="36.605920" lon="-118.744020">
        <ele>2056.149</ele>
        <time>2018-12-30T10:47:35Z</time>
      </trkpt>
      <trkpt lat="36.605880" lon="-118.743920">
        <ele>2056.123</ele>
        <time>2018-12-30T10:47:55Z</time>
      </trkpt>
      <trkpt lat="36.605860" lon="-118.743870">
        <ele>2056.108</ele>
        <time>2018-12-30T10:48:15Z</time>
      </trkpt>
      <trkpt lat="36.605840" lon="-118.743820">
        <ele>2056.052</ele>
        <time>2018-12-30T10:48:35Z</time>
      </trkpt>
      <trkpt lat="36.605820" lon="-118.743770">
        <ele>2055.950</ele>
        <time>2018-12-30T10:48:55Z</time>
      </trkpt>
      <trkpt lat="36.605810" lon="-118.743720">
        <ele>2056.095</ele>
        <time>2018-12-30T10:49:15Z</time>
      </trkpt>
      <trkpt lat="36.605790" lon="-118.743660">
        <ele>2055.895</ele>
        <time>2018-12-30T10:49:35Z</time>
      </trkpt>
      <trkpt lat="36.605770" lon="-118.743600">
        <ele>2055.689</ele>
        <time>2018-12-30T10:49:55Z</time>
      </trkpt>
      <trkpt lat="36.605760" lon="-118.743520">
        <ele>2055.779</ele>
        <time>2018-12-30T10:50:15Z</time>
      </trkpt>
      <trkpt lat="36.605740" lon="-118.743460">
        <ele>2055.485</ele>
        <time>2018-12-30T10:50:35Z</time>
      </trkpt>
      <trkpt lat="36.605730" lon="-118.743380">
        <ele>2055.354</ele>
        <time>2018-12-30T10:50:55Z</time>
      </trkpt>
      <trkpt lat="36.605720" lon="-118.743330">
        <ele>2055.138</ele>
        <time>2018-12-30T10:51:15Z</time>
      </trkpt>
      <trkpt lat="36.605720" lon="-118.743270">
        <ele>2055.170</ele>
        <time>2018-12-30T10:51:35Z</time>
      </trkpt>
      <trkpt lat="36.605710" lon="-118.743170">
        <ele>2055.017</ele>
        <time>2018-12-30T10:51:55Z</time>
      </trkpt>
      <trkpt lat="36.605700" lon="-118.743090">
        <ele>2054.608</ele>
        <time>2018-12-30T10:52:15Z</time>
      </trkpt>
      <trkpt lat="36.605700" lon="-118.742990">
        <ele>2054.466</ele>
        <time>2018-12-30T10:52:35Z</time>
      </trkpt>
      <trkpt lat="36.605700" lon="-118.742910">
        <ele>2054.254</ele>
        <time>2018-12-30T10:52:55Z</time>
      </trkpt>
      <trkpt lat="36.605700" lon="-118.742840">
        <ele>2053.979</ele>
        <time>2018-12-30T10:53:15Z</time>
      </trkpt>
      <trkpt lat="36.605700" lon="-118.742770">
        <ele>2053.629</ele>
        <time>2018-12-30T10:53:35Z</time>
      </trkpt>
      <trkpt lat="36.605710" lon="-118.742710">
        <ele>2053.693</ele>
        <time>2018-12-30T10:53:55Z</time>
      </trkpt>
      <trkpt lat="36.605710" lon="-118.742660">
        <ele>2053.443</ele>
        <time>2018-12-30T10:54:15Z</time>
      </trkpt>
      <trkpt lat="36.605710" lon="-118.742600">
        <ele>2053.259</ele>
        <time>2018-12-30T10:54:35Z</time>
      </trkpt>
      <trkpt lat="36.605720" lon="-118.742510">
        <ele>2053.568</ele>
        <time>2018-12-30T10:54:55Z</time>
      </trkpt>
      <trkpt lat="36.605730" lon="-118.742410">
        <ele>2053.724</ele>
        <time>2018-12-30T10:55:15Z</time>
      </trkpt>
      <trkpt lat="36.605740" lon="-118.742310">
        <ele>2054.104</ele>
        <time>2018-12-30T10:55:35Z</time>
      </trkpt>
      <trkpt lat="36.605750" lon="-118.742210">
        <ele>2054.714</ele>
        <time>2018-12-30T10:55:55Z</time>
      </trkpt>
      <trkpt lat="36.605750" lon="-118.742110">
        <ele>2054.708</ele>
        <time>2018-12-30T10:56:15Z</time>
      </trkpt>
      <trkpt lat="36.605750" lon="-118.742030">
        <ele>2055.115</ele>
        <time>2018-12-30T10:56:35Z</time>
      </trkpt>
      <trkpt lat="36.605750" lon="-118.741940">
        <ele>2055.653</ele>
        <time>2018-12-30T10:56:55Z</time>
      </trkpt>
      <trkpt lat="36.605750" lon="-118.741890">
        <ele>2055.848</ele>
        <time>2018-12-30T10:57:15Z</time>
      </trkpt>
      <trkpt lat="36.605740" lon="-118.741830">
        <ele>2055.718</ele>
        <time>2018-12-30T10:57:35Z</time>
      </trkpt>
      <trkpt lat="36.605730" lon="-118.741760">
        <ele>2055.972</ele>
        <time>2018-12-30T10:57:55Z</time>
      </trkpt>
      <trkpt lat="36.605720" lon="-118.741680">
        <ele>2056.492</ele>
        <time>2018-12-30T10:58:15Z</time>
      </trkpt>
      <trkpt lat="36.605700" lon="-118.741620">
        <ele>2056.328</ele>
        <time>2018-12-30T10:58:35Z</time>
      </trkpt>
      <trkpt lat="36.605680" lon="-118.741550">
        <ele>2056.367</ele>
        <time>2018-12-30T10:58:55Z</time>
      </trkpt>
      <trkpt lat="36.605660" lon="-118.741480">
        <ele>2056.593</ele>
        <time>2018-12-30T10:59:15Z</time>
      </trkpt>
      <trkpt lat="36.605640" lon="-118.741430">
        <ele>2056.465</ele>
        <time>2018-12-30T10:59:35Z</time>
      </trkpt>
      <trkpt lat="36.605620" lon="-118.741390">
        <ele>2056.121</ele>
        <time>2018-12-30T10:59:55Z</time>
      </trkpt>
      <trkpt lat="36.605590" lon="-118.741330">
        <ele>2055.808</ele>
        <time>2018-12-30T11:00:15Z</time>
      </trkpt>
      <trkpt lat="36.605510" lon="-118.741150">
        <ele>2055.142</ele>
        <time>2018-12-30T11:00:35Z</time>
      </trkpt>
      <trkpt lat="36.605430" lon="-118.741000">
        <ele>2054.070</ele>
        <time>2018-12-30T11:00:55Z</time>
      </trkpt>
      <trkpt lat="36.605380" lon="-118.740900">
        <ele>2053.255</ele>
        <time>2018-12-30T11:01:15Z</time>
      </trkpt>
      <trkpt lat="36.605340" lon="-118.740810">
        <ele>2052.765</ele>
        <time>2018-12-30T11:01:35Z</time>
      </trkpt>
      <trkpt lat="36.605300" lon="-118.740740">
        <ele>2052.249</ele>
        <time>2018-12-30T11:01:55Z</time>
      </trkpt>
      <trkpt lat="36.605280" lon="-118.740690">
        <ele>2052.079</ele>
        <time>2018-12-30T11:02:15Z</time>
      </trkpt>
      <trkpt lat="36.605260" lon="-118.740630">
        <ele>2051.575</ele>
        <time>2018-12-30T11:02:35Z</time>
      </trkpt>
      <trkpt lat="36.605240" lon="-118.740560">
        <ele>2051.044</ele>
        <time>2018-12-30T11:02:55Z</time>
      </trkpt>
      <trkpt lat="36.605210" lon="-118.740460">
        <ele>2050.533</ele>
        <time>2018-12-30T11:03:15Z</time>
      </trkpt>
      <trkpt lat="36.605180" lon="-118.740370">
        <ele>2049.523</ele>
        <time>2018-12-30T11:03:35Z</time>
      </trkpt>
      <trkpt lat="36.605150" lon="-118.740260">
        <ele>2047.715</ele>
        <time>2018-12-30T11:03:55Z</time>
      </trkpt>
      <trkpt lat="36.605130" lon="-118.740130">
        <ele>2046.008</ele>
        <time>2018-12-30T11:04:15Z</time>
      </trkpt>
      <trkpt lat="36.605090" lon="-118.739970">
        <ele>2045.836</ele>
        <time>2018-12-30T11:04:35Z</time>
      </trkpt>
      <trkpt lat="36.605050" lon="-118.739770">
        <ele>2045.554</ele>
        <time>2018-12-30T11:04:55Z</time>
      </trkpt>
      <trkpt lat="36.605000" lon="-118.739470">
        <ele>2044.639</ele>
        <time>2018-12-30T11:05:15Z</time>
      </trkpt>
      <trkpt lat="36.604980" lon="-118.739340">
        <ele>2043.949</ele>
        <time>2018-12-30T11:05:35Z</time>
      </trkpt>
      <trkpt lat="36.604920" lon="-118.739020">
        <ele>2040.853</ele>
        <time>2018-12-30T11:05:55Z</time>
      </trkpt>
      <trkpt lat="36.604880" lon="-118.738760">
        <ele>2038.963</ele>
        <time>2018-12-30T11:06:15Z</time>
      </trkpt>
      <trkpt lat="36.604830" lon="-118.738490">
        <ele>2040.719</ele>
        <time>2018-12-30T11:06:35Z</time>
      </trkpt>
      <trkpt lat="36.604810" lon="-118.738380">
        <ele>2041.498</ele>
        <time>2018-12-30T11:06:55Z</time>
      </trkpt>
      <trkpt lat="36.604780" lon="-118.738180">
        <ele>2042.568</ele>
        <time>2018-12-30T11:07:15Z</time>
      </trkpt>
      <trkpt lat="36.604770" lon="-118.738090">
        <ele>2042.742</ele>
        <time>2018-12-30T11:07:35Z</time>
      </trkpt>
      <trkpt lat="36.604750" lon="-118.737990">
        <ele>2042.726</ele>
        <time>2018-12-30T11:07:55Z</time>
      </trkpt>
      <trkpt lat="36.604730" lon="-118.737820">
        <ele>2042.608</ele>
        <time>2018-12-30T11:08:15Z</time>
      </trkpt>
      <trkpt lat="36.604720" lon="-118.737730">
        <ele>2042.329</ele>
        <time>2018-12-30T11:08:35Z</time>
      </trkpt>
      <trkpt lat="36.604710" lon="-118.737620">
        <ele>2042.137</ele>
        <time>2018-12-30T11:08:55Z</time>
      </trkpt>
      <trkpt lat="36.604710" lon="-118.737550">
        <ele>2041.932</ele>
        <time>2018-12-30T11:09:15Z</time>
      </trkpt>
      <trkpt lat="36.604710" lon="-118.737470">
        <ele>2041.742</ele>
        <time>2018-12-30T11:09:35Z</time>
      </trkpt>
      <trkpt lat="36.604710" lon="-118.737420">
        <ele>2041.696</ele>
        <time>2018-12-30T11:09:55Z</time>
      </trkpt>
      <trkpt lat="36.604710" lon="-118.737380">
        <ele>2041.596</ele>
        <time>2018-12-30T11:10:15Z</time>
      </trkpt>
      <trkpt lat="36.604720" lon="-118.737320">
        <ele>2041.552</ele>
        <time>2018-12-30T11:10:35Z</time>
      </trkpt>
      <trkpt lat="36.604730" lon="-118.737250">
        <ele>2041.381</ele>
        <time>2018-12-30T11:10:55Z</time>
      </trkpt>
      <trkpt lat="36.604730" lon="-118.737200">
        <ele>2041.112</ele>
        <time>2018-12-30T11:11:15Z</time>
      </trkpt>
      <trkpt lat="36.604750" lon="-118.737120">
        <ele>2041.132</ele>
        <time>2018-12-30T11:11:35Z</time>
      </trkpt>
      <trkpt lat="36.604770" lon="-118.737060">
        <ele>2041.105</ele>
        <time>2018-12-30T11:11:55Z</time>
      </trkpt>
      <trkpt lat="36.604800" lon="-118.736950">
        <ele>2041.008</ele>
        <time>2018-12-30T11:12:15Z</time>
      </trkpt>
      <trkpt lat="36.604880" lon="-118.736660">
        <ele>2040.694</ele>
        <time>2018-12-30T11:12:35Z</time>
      </trkpt>
      <trkpt lat="36.604950" lon="-118.736440">
        <ele>2040.182</ele>
        <time>2018-12-30T11:12:55Z</time>
      </trkpt>
      <trkpt lat="36.605010" lon="-118.736230">
        <ele>2039.557</ele>
        <time>2018-12-30T11:13:15Z</time>
      </trkpt>
      <trkpt lat="36.605040" lon="-118.736120">
        <ele>2039.537</ele>
        <time>2018-12-30T11:13:35Z</time>
      </trkpt>
      <trkpt lat="36.605050" lon="-118.736040">
        <ele>2039.441</ele>
        <time>2018-12-30T11:13:55Z</time>
      </trkpt>
      <trkpt lat="36.605080" lon="-118.735920">
        <ele>2039.441</ele>
        <time>2018-12-30T11:14:15Z</time>
      </trkpt>
      <trkpt lat="36.605100" lon="-118.735780">
        <ele>2039.397</ele>
        <time>2018-12-30T11:14:35Z</time>
      </trkpt>
      <trkpt lat="36.605120" lon="-118.735680">
        <ele>2039.426</ele>
        <time>2018-12-30T11:14:55Z</time>
      </trkpt>
      <trkpt lat="36.605130" lon="-118.735570">
        <ele>2039.675</ele>
        <time>2018-12-30T11:15:15Z</time>
      </trkpt>
      <trkpt lat="36.605140" lon="-118.735500">
        <ele>2039.828</ele>
        <time>2018-12-30T11:15:35Z</time>
      </trkpt>
      <trkpt lat="36.605140" lon="-118.735290">
        <ele>2040.120</ele>
        <time>2018-12-30T11:15:55Z</time>
      </trkpt>
      <trkpt lat="36.605130" lon="-118.735180">
        <ele>2040.108</ele>
        <time>2018-12-30T11:16:15Z</time>
      </trkpt>
      <trkpt lat="36.605120" lon="-118.735070">
        <ele>2040.240</ele>
        <time>2018-12-30T11:16:35Z</time>
      </trkpt>
      <trkpt lat="36.605090" lon="-118.734940">
        <ele>2039.998</ele>
        <time>2018-12-30T11:16:55Z</time>
      </trkpt>
      <trkpt lat="36.605070" lon="-118.734860">
        <ele>2039.723</ele>
        <time>2018-12-30T11:17:15Z</time>
      </trkpt>
      <trkpt lat="36.605030" lon="-118.734730">
        <ele>2038.963</ele>
        <time>2018-12-30T11:17:35Z</time>
      </trkpt>
      <trkpt lat="36.604990" lon="-118.734640">
        <ele>2038.397</ele>
        <time>2018-12-30T11:17:55Z</time>
      </trkpt>
      <trkpt lat="36.604960" lon="-118.734590">
        <ele>2037.867</ele>
        <time>2018-12-30T11:18:15Z</time>
      </trkpt>
      <trkpt lat="36.604910" lon="-118.734510">
        <ele>2036.553</ele>
        <time>2018-12-30T11:18:35Z</time>
      </trkpt>
      <trkpt lat="36.604850" lon="-118.734440">
        <ele>2034.982</ele>
        <time>2018-12-30T11:18:55Z</time>
      </trkpt>
      <trkpt lat="36.604760" lon="-118.734350">
        <ele>2032.158</ele>
        <time>2018-12-30T11:19:15Z</time>
      </trkpt>
      <trkpt lat="36.604720" lon="-118.734320">
        <ele>2030.952</ele>
        <time>2018-12-30T11:19:35Z</time>
      </trkpt>
      <trkpt lat="36.604670" lon="-118.734270">
        <ele>2029.617</ele>
        <time>2018-12-30T11:19:55Z</time>
      </trkpt>
      <trkpt lat="36.604640" lon="-118.734260">
        <ele>2029.008</ele>
        <time>2018-12-30T11:20:15Z</time>
      </trkpt>
      <trkpt lat="36.604560" lon="-118.734210">
        <ele>2028.158</ele>
        <time>2018-12-30T11:20:35Z</time>
      </trkpt>
      <trkpt lat="36.604530" lon="-118.734200">
        <ele>2028.696</ele>
        <time>2018-12-30T11:20:55Z</time>
      </trkpt>
      <trkpt lat="36.604440" lon="-118.734180">
        <ele>2030.071</ele>
        <time>2018-12-30T11:21:15Z</time>
      </trkpt>
      <trkpt lat="36.604360" lon="-118.734170">
        <ele>2031.451</ele>
        <time>2018-12-30T11:21:35Z</time>
      </trkpt>
      <trkpt lat="36.604280" lon="-118.734180">
        <ele>2032.425</ele>
        <time>2018-12-30T11:21:55Z</time>
      </trkpt>
      <trkpt lat="36.604180" lon="-118.734190">
        <ele>2033.945</ele>
        <time>2018-12-30T11:22:15Z</time>
      </trkpt>
      <trkpt lat="36.604150" lon="-118.734200">
        <ele>2034.371</ele>
        <time>2018-12-30T11:22:35Z</time>
      </trkpt>
      <trkpt lat="36.604070" lon="-118.734220">
        <ele>2035.320</ele>
        <time>2018-12-30T11:22:55Z</time>
      </trkpt>
      <trkpt lat="36.604000" lon="-118.734260">
        <ele>2036.163</ele>
        <time>2018-12-30T11:23:15Z</time>
      </trkpt>
      <trkpt lat="36.603920" lon="-118.734290">
        <ele>2037.444</ele>
        <time>2018-12-30T11:23:35Z</time>
      </trkpt>
      <trkpt lat="36.603870" lon="-118.734330">
        <ele>2038.218</ele>
        <time>2018-12-30T11:23:55Z</time>
      </trkpt>
      <trkpt lat="36.603830" lon="-118.734370">
        <ele>2039.008</ele>
        <time>2018-12-30T11:24:15Z</time>
      </trkpt>
      <trkpt lat="36.603760" lon="-118.734450">
        <ele>2040.469</ele>
        <time>2018-12-30T11:24:35Z</time>
      </trkpt>
      <trkpt lat="36.603750" lon="-118.734450">
        <ele>2040.687</ele>
        <time>2018-12-30T11:24:55Z</time>
      </trkpt>
      <trkpt lat="36.603710" lon="-118.734510">
        <ele>2041.462</ele>
        <time>2018-12-30T11:25:15Z</time>
      </trkpt>
      <trkpt lat="36.603650" lon="-118.734600">
        <ele>2042.562</ele>
        <time>2018-12-30T11:25:35Z</time>
      </trkpt>
      <trkpt lat="36.603600" lon="-118.734700">
        <ele>2043.296</ele>
        <time>2018-12-30T11:25:55Z</time>
      </trkpt>
      <trkpt lat="36.603550" lon="-118.734820">
        <ele>2044.016</ele>
        <time>2018-12-30T11:26:15Z</time>
      </trkpt>
      <trkpt lat="36.603490" lon="-118.734970">
        <ele>2044.622</ele>
        <time>2018-12-30T11:26:35Z</time>
      </trkpt>
      <trkpt lat="36.603390" lon="-118.735210">
        <ele>2045.511</ele>
        <time>2018-12-30T11:26:55Z</time>
      </trkpt>
      <trkpt lat="36.603230" lon="-118.735660">
        <ele>2046.441</ele>
        <time>2018-12-30T11:27:15Z</time>
      </trkpt>
      <trkpt lat="36.603120" lon="-118.735960">
        <ele>2046.981</ele>
        <time>2018-12-30T11:27:35Z</time>
      </trkpt>
      <trkpt lat="36.603040" lon="-118.736180">
        <ele>2047.109</ele>
        <time>2018-12-30T11:27:55Z</time>
      </trkpt>
      <trkpt lat="36.602950" lon="-118.736450">
        <ele>2047.308</ele>
        <time>2018-12-30T11:28:15Z</time>
      </trkpt>
      <trkpt lat="36.602900" lon="-118.736560">
        <ele>2047.857</ele>
        <time>2018-12-30T11:28:35Z</time>
      </trkpt>
      <trkpt lat="36.602860" lon="-118.736690">
        <ele>2048.365</ele>
        <time>2018-12-30T11:28:55Z</time>
      </trkpt>
      <trkpt lat="36.602800" lon="-118.736870">
        <ele>2048.870</ele>
        <time>2018-12-30T11:29:15Z</time>
      </trkpt>
      <trkpt lat="36.602730" lon="-118.737100">
        <ele>2049.070</ele>
        <time>2018-12-30T11:29:35Z</time>
      </trkpt>
      <trkpt lat="36.602650" lon="-118.737350">
        <ele>2048.824</ele>
        <time>2018-12-30T11:29:55Z</time>
      </trkpt>
      <trkpt lat="36.602600" lon="-118.737590">
        <ele>2049.634</ele>
        <time>2018-12-30T11:30:15Z</time>
      </trkpt>
      <trkpt lat="36.602540" lon="-118.737870">
        <ele>2052.090</ele>
        <time>2018-12-30T11:30:35Z</time>
      </trkpt>
      <trkpt lat="36.602460" lon="-118.738220">
        <ele>2055.879</ele>
        <time>2018-12-30T11:30:55Z</time>
      </trkpt>
      <trkpt lat="36.602390" lon="-118.738590">
        <ele>2056.762</ele>
        <time>2018-12-30T11:31:15Z</time>
      </trkpt>
      <trkpt lat="36.602360" lon="-118.738750">
        <ele>2057.083</ele>
        <time>2018-12-30T11:31:35Z</time>
      </trkpt>
      <trkpt lat="36.602320" lon="-118.738950">
        <ele>2057.811</ele>
        <time>2018-12-30T11:31:55Z</time>
      </trkpt>
      <trkpt lat="36.602250" lon="-118.739370">
        <ele>2058.908</ele>
        <time>2018-12-30T11:32:15Z</time>
      </trkpt>
      <trkpt lat="36.602200" lon="-118.739640">
        <ele>2059.699</ele>
        <time>2018-12-30T11:32:35Z</time>
      </trkpt>
      <trkpt lat="36.602120" lon="-118.740030">
        <ele>2060.167</ele>
        <time>2018-12-30T11:32:55Z</time>
      </trkpt>
      <trkpt lat="36.602010" lon="-118.740610">
        <ele>2066.222</ele>
        <time>2018-12-30T11:33:15Z</time>
      </trkpt>
      <trkpt lat="36.601970" lon="-118.740830">
        <ele>2069.152</ele>
        <time>2018-12-30T11:33:35Z</time>
      </trkpt>
      <trkpt lat="36.601920" lon="-118.741060">
        <ele>2071.056</ele>
        <time>2018-12-30T11:33:55Z</time>
      </trkpt>
      <trkpt lat="36.601870" lon="-118.741370">
        <ele>2071.196</ele>
        <time>2018-12-30T11:34:15Z</time>
      </trkpt>
      <trkpt lat="36.601840" lon="-118.741510">
        <ele>2071.042</ele>
        <time>2018-12-30T11:34:35Z</time>
      </trkpt>
      <trkpt lat="36.601810" lon="-118.741610">
        <ele>2071.171</ele>
        <time>2018-12-30T11:34:55Z</time>
      </trkpt>
      <trkpt lat="36.601770" lon="-118.741700">
        <ele>2071.532</ele>
        <time>2018-12-30T11:35:15Z</time>
      </trkpt>
      <trkpt lat="36.601750" lon="-118.741760">
        <ele>2071.492</ele>
        <time>2018-12-30T11:35:35Z</time>
      </trkpt>
      <trkpt lat="36.601720" lon="-118.741840">
        <ele>2071.411</ele>
        <time>2018-12-30T11:35:55Z</time>
      </trkpt>
      <trkpt lat="36.601650" lon="-118.741980">
        <ele>2071.608</ele>
        <time>2018-12-30T11:36:15Z</time>
      </trkpt>
      <trkpt lat="36.601610" lon="-118.742060">
        <ele>2071.446</ele>
        <time>2018-12-30T11:36:35Z</time>
      </trkpt>
      <trkpt lat="36.601550" lon="-118.742170">
        <ele>2071.554</ele>
        <time>2018-12-30T11:36:55Z</time>
      </trkpt>
      <trkpt lat="36.601450" lon="-118.742320">
        <ele>2072.629</ele>
        <time>2018-12-30T11:37:15Z</time>
      </trkpt>
      <trkpt lat="36.601360" lon="-118.742440">
        <ele>2074.089</ele>
        <time>2018-12-30T11:37:35Z</time>
      </trkpt>
      <trkpt lat="36.601310" lon="-118.742500">
        <ele>2075.113</ele>
        <time>2018-12-30T11:37:55Z</time>
      </trkpt>
      <trkpt lat="36.601260" lon="-118.742560">
        <ele>2076.273</ele>
        <time>2018-12-30T11:38:15Z</time>
      </trkpt>
      <trkpt lat="36.601230" lon="-118.742590">
        <ele>2076.929</ele>
        <time>2018-12-30T11:38:35Z</time>
      </trkpt>
      <trkpt lat="36.601170" lon="-118.742660">
        <ele>2077.828</ele>
        <time>2018-12-30T11:38:55Z</time>
      </trkpt>
      <trkpt lat="36.601110" lon="-118.742720">
        <ele>2078.535</ele>
        <time>2018-12-30T11:39:15Z</time>
      </trkpt>
      <trkpt lat="36.600820" lon="-118.743000">
        <ele>2080.186</ele>
        <time>2018-12-30T11:39:35Z</time>
      </trkpt>
      <trkpt lat="36.600750" lon="-118.743070">
        <ele>2080.314</ele>
        <time>2018-12-30T11:39:55Z</time>
      </trkpt>
      <trkpt lat="36.600520" lon="-118.743310">
        <ele>2080.508</ele>
        <time>2018-12-30T11:40:15Z</time>
      </trkpt>
      <trkpt lat="36.600430" lon="-118.743400">
        <ele>2080.486</ele>
        <time>2018-12-30T11:40:35Z</time>
      </trkpt>
      <trkpt lat="36.600340" lon="-118.743480">
        <ele>2080.774</ele>
        <time>2018-12-30T11:40:55Z</time>
      </trkpt>
      <trkpt lat="36.600230" lon="-118.743600">
        <ele>2080.879</ele>
        <time>2018-12-30T11:41:15Z</time>
      </trkpt>
      <trkpt lat="36.600060" lon="-118.743760">
        <ele>2081.389</ele>
        <time>2018-12-30T11:41:35Z</time>
      </trkpt>
      <trkpt lat="36.599930" lon="-118.743890">
        <ele>2081.873</ele>
        <time>2018-12-30T11:41:55Z</time>
      </trkpt>
      <trkpt lat="36.599860" lon="-118.743960">
        <ele>2082.273</ele>
        <time>2018-12-30T11:42:15Z</time>
      </trkpt>
      <trkpt lat="36.599780" lon="-118.744050">
        <ele>2082.849</ele>
        <time>2018-12-30T11:42:35Z</time>
      </trkpt>
      <trkpt lat="36.599690" lon="-118.744160">
        <ele>2083.218</ele>
        <time>2018-12-30T11:42:55Z</time>
      </trkpt>
      <trkpt lat="36.599600" lon="-118.744260">
        <ele>2083.383</ele>
        <time>2018-12-30T11:43:15Z</time>
      </trkpt>
      <trkpt lat="36.599550" lon="-118.744320">
        <ele>2083.925</ele>
        <time>2018-12-30T11:43:35Z</time>
      </trkpt>
      <trkpt lat="36.599500" lon="-118.744400">
        <ele>2084.317</ele>
        <time>2018-12-30T11:43:55Z</time>
      </trkpt>
      <trkpt lat="36.599420" lon="-118.744500">
        <ele>2084.508</ele>
        <time>2018-12-30T11:44:15Z</time>
      </trkpt>
      <trkpt lat="36.599370" lon="-118.744580">
        <ele>2083.471</ele>
        <time>2018-12-30T11:44:35Z</time>
      </trkpt>
      <trkpt lat="36.599270" lon="-118.744740">
        <ele>2084.849</ele>
        <time>2018-12-30T11:44:55Z</time>
      </trkpt>
      <trkpt lat="36.599130" lon="-118.745000">
        <ele>2085.494</ele>
        <time>2018-12-30T11:45:15Z</time>
      </trkpt>
      <trkpt lat="36.598990" lon="-118.745260">
        <ele>2085.274</ele>
        <time>2018-12-30T11:45:35Z</time>
      </trkpt>
      <trkpt lat="36.598640" lon="-118.745890">
        <ele>2088.588</ele>
        <time>2018-12-30T11:45:55Z</time>
      </trkpt>
      <trkpt lat="36.598530" lon="-118.746100">
        <ele>2091.448</ele>
        <time>2018-12-30T11:46:15Z</time>
      </trkpt>
      <trkpt lat="36.598450" lon="-118.746250">
        <ele>2092.634</ele>
        <time>2018-12-30T11:46:35Z</time>
      </trkpt>
      <trkpt lat="36.598340" lon="-118.746460">
        <ele>2093.213</ele>
        <time>2018-12-30T11:46:55Z</time>
      </trkpt>
      <trkpt lat="36.598200" lon="-118.746710">
        <ele>2093.697</ele>
        <time>2018-12-30T11:47:15Z</time>
      </trkpt>
      <trkpt lat="36.597870" lon="-118.747290">
        <ele>2093.623</ele>
        <time>2018-12-30T11:47:35Z</time>
      </trkpt>
      <trkpt lat="36.597760" lon="-118.747480">
        <ele>2093.425</ele>
        <time>2018-12-30T11:47:55Z</time>
      </trkpt>
      <trkpt lat="36.597690" lon="-118.747570">
        <ele>2093.508</ele>
        <time>2018-12-30T11:48:15Z</time>
      </trkpt>
      <trkpt lat="36.597600" lon="-118.747680">
        <ele>2093.512</ele>
        <time>2018-12-30T11:48:35Z</time>
      </trkpt>
      <trkpt lat="36.597520" lon="-118.747760">
        <ele>2093.730</ele>
        <time>2018-12-30T11:48:55Z</time>
      </trkpt>
      <trkpt lat="36.597430" lon="-118.747850">
        <ele>2093.925</ele>
        <time>2018-12-30T11:49:15Z</time>
      </trkpt>
      <trkpt lat="36.597370" lon="-118.747890">
        <ele>2094.115</ele>
        <time>2018-12-30T11:49:35Z</time>
      </trkpt>
      <trkpt lat="36.597300" lon="-118.747940">
        <ele>2094.379</ele>
        <time>2018-12-30T11:49:55Z</time>
      </trkpt>
      <trkpt lat="36.597210" lon="-118.748000">
        <ele>2094.589</ele>
        <time>2018-12-30T11:50:15Z</time>
      </trkpt>
      <trkpt lat="36.597130" lon="-118.748040">
        <ele>2094.915</ele>
        <time>2018-12-30T11:50:35Z</time>
      </trkpt>
      <trkpt lat="36.597040" lon="-118.748080">
        <ele>2095.184</ele>
        <time>2018-12-30T11:50:55Z</time>
      </trkpt>
      <trkpt lat="36.596970" lon="-118.748110">
        <ele>2095.378</ele>
        <time>2018-12-30T11:51:15Z</time>
      </trkpt>
      <trkpt lat="36.596890" lon="-118.748130">
        <ele>2095.633</ele>
        <time>2018-12-30T11:51:35Z</time>
      </trkpt>
      <trkpt lat="36.596830" lon="-118.748150">
        <ele>2095.826</ele>
        <time>2018-12-30T11:51:55Z</time>
      </trkpt>
      <trkpt lat="36.596760" lon="-118.748160">
        <ele>2095.908</ele>
        <time>2018-12-30T11:52:15Z</time>
      </trkpt>
      <trkpt lat="36.596660" lon="-118.748180">
        <ele>2095.910</ele>
        <time>2018-12-30T11:52:35Z</time>
      </trkpt>
      <trkpt lat="36.596530" lon="-118.748180">
        <ele>2096.248</ele>
        <time>2018-12-30T11:52:55Z</time>
      </trkpt>
      <trkpt lat="36.596430" lon="-118.748180">
        <ele>2095.893</ele>
        <time>2018-12-30T11:53:15Z</time>
      </trkpt>
      <trkpt lat="36.596260" lon="-118.748160">
        <ele>2095.333</ele>
        <time>2018-12-30T11:53:35Z</time>
      </trkpt>
      <trkpt lat="36.595860" lon="-118.748130">
        <ele>2095.557</ele>
        <time>2018-12-30T11:53:55Z</time>
      </trkpt>
      <trkpt lat="36.595770" lon="-118.748120">
        <ele>2096.197</ele>
        <time>2018-12-30T11:54:15Z</time>
      </trkpt>
      <trkpt lat="36.595690" lon="-118.748120">
        <ele>2096.663</ele>
        <time>2018-12-30T11:54:35Z</time>
      </trkpt>
      <trkpt lat="36.595620" lon="-118.748120">
        <ele>2096.872</ele>
        <time>2018-12-30T11:54:55Z</time>
      </trkpt>
      <trkpt lat="36.595530" lon="-118.748130">
        <ele>2096.973</ele>
        <time>2018-12-30T11:55:15Z</time>
      </trkpt>
      <trkpt lat="36.595420" lon="-118.748150">
        <ele>2096.985</ele>
        <time>2018-12-30T11:55:35Z</time>
      </trkpt>
      <trkpt lat="36.595340" lon="-118.748170">
        <ele>2097.113</ele>
        <time>2018-12-30T11:55:55Z</time>
      </trkpt>
      <trkpt lat="36.595230" lon="-118.748220">
        <ele>2096.908</ele>
        <time>2018-12-30T11:56:15Z</time>
      </trkpt>
      <trkpt lat="36.595110" lon="-118.748290">
        <ele>2097.250</ele>
        <time>2018-12-30T11:56:35Z</time>
      </trkpt>
      <trkpt lat="36.595060" lon="-118.748330">
        <ele>2097.518</ele>
        <time>2018-12-30T11:56:55Z</time>
      </trkpt>
      <trkpt lat="36.595010" lon="-118.748360">
        <ele>2097.973</ele>
        <time>2018-12-30T11:57:15Z</time>
      </trkpt>
      <trkpt lat="36.594930" lon="-118.748430">
        <ele>2097.743</ele>
        <time>2018-12-30T11:57:35Z</time>
      </trkpt>
      <trkpt lat="36.594830" lon="-118.748520">
        <ele>2098.047</ele>
        <time>2018-12-30T11:57:55Z</time>
      </trkpt>
      <trkpt lat="36.594760" lon="-118.748600">
        <ele>2098.787</ele>
        <time>2018-12-30T11:58:15Z</time>
      </trkpt>
      <trkpt lat="36.594700" lon="-118.748670">
        <ele>2098.583</ele>
        <time>2018-12-30T11:58:35Z</time>
      </trkpt>
      <trkpt lat="36.594660" lon="-118.748720">
        <ele>2097.992</ele>
        <time>2018-12-30T11:58:55Z</time>
      </trkpt>
      <trkpt lat="36.594600" lon="-118.748790">
        <ele>2097.378</ele>
        <time>2018-12-30T11:59:15Z</time>
      </trkpt>
      <trkpt lat="36.594540" lon="-118.748870">
        <ele>2098.033</ele>
        <time>2018-12-30T11:59:35Z</time>
      </trkpt>
      <trkpt lat="36.594450" lon="-118.748990">
        <ele>2097.826</ele>
        <time>2018-12-30T11:59:55Z</time>
      </trkpt>
      <trkpt lat="36.594340" lon="-118.749170">
        <ele>2098.408</ele>
        <time>2018-12-30T12:00:15Z</time>
      </trkpt>
      <trkpt lat="36.594270" lon="-118.749280">
        <ele>2100.250</ele>
        <time>2018-12-30T12:00:35Z</time>
      </trkpt>
      <trkpt lat="36.594180" lon="-118.749420">
        <ele>2100.878</ele>
        <time>2018-12-30T12:00:55Z</time>
      </trkpt>
      <trkpt lat="36.594070" lon="-118.749600">
        <ele>2100.443</ele>
        <time>2018-12-30T12:01:15Z</time>
      </trkpt>
      <trkpt lat="36.593940" lon="-118.749810">
        <ele>2099.743</ele>
        <time>2018-12-30T12:01:35Z</time>
      </trkpt>
      <trkpt lat="36.593890" lon="-118.749890">
        <ele>2099.357</ele>
        <time>2018-12-30T12:01:55Z</time>
      </trkpt>
      <trkpt lat="36.593840" lon="-118.749980">
        <ele>2098.637</ele>
        <time>2018-12-30T12:02:15Z</time>
      </trkpt>
      <trkpt lat="36.593770" lon="-118.750090">
        <ele>2098.463</ele>
        <time>2018-12-30T12:02:35Z</time>
      </trkpt>
      <trkpt lat="36.593700" lon="-118.750190">
        <ele>2098.122</ele>
        <time>2018-12-30T12:02:55Z</time>
      </trkpt>
      <trkpt lat="36.593650" lon="-118.750250">
        <ele>2097.961</ele>
        <time>2018-12-30T12:03:15Z</time>
      </trkpt>
      <trkpt lat="36.593600" lon="-118.750320">
        <ele>2097.621</ele>
        <time>2018-12-30T12:03:35Z</time>
      </trkpt>
      <trkpt lat="36.593550" lon="-118.750370">
        <ele>2097.813</ele>
        <time>2018-12-30T12:03:55Z</time>
      </trkpt>
      <trkpt lat="36.593500" lon="-118.750440">
        <ele>2097.608</ele>
        <time>2018-12-30T12:04:15Z</time>
      </trkpt>
      <trkpt lat="36.593440" lon="-118.750510">
        <ele>2097.349</ele>
        <time>2018-12-30T12:04:35Z</time>
      </trkpt>
      <trkpt lat="36.593370" lon="-118.750590">
        <ele>2097.317</ele>
        <time>2018-12-30T12:04:55Z</time>
      </trkpt>
      <trkpt lat="36.593300" lon="-118.750660">
        <ele>2097.892</ele>
        <time>2018-12-30T12:05:15Z</time>
      </trkpt>
      <trkpt lat="36.593220" lon="-118.750740">
        <ele>2098.472</ele>
        <time>2018-12-30T12:05:35Z</time>
      </trkpt>
      <trkpt lat="36.593130" lon="-118.750830">
        <ele>2098.156</ele>
        <time>2018-12-30T12:05:55Z</time>
      </trkpt>
      <trkpt lat="36.593070" lon="-118.750880">
        <ele>2098.116</ele>
        <time>2018-12-30T12:06:15Z</time>
      </trkpt>
      <trkpt lat="36.593000" lon="-118.750940">
        <ele>2098.272</ele>
        <time>2018-12-30T12:06:35Z</time>
      </trkpt>
      <trkpt lat="36.592970" lon="-118.750970">
        <ele>2098.131</ele>
        <time>2018-12-30T12:06:55Z</time>
      </trkpt>
      <trkpt lat="36.592920" lon="-118.751000">
        <ele>2098.371</ele>
        <time>2018-12-30T12:07:15Z</time>
      </trkpt>
      <trkpt lat="36.592820" lon="-118.751070">
        <ele>2098.441</ele>
        <time>2018-12-30T12:07:35Z</time>
      </trkpt>
      <trkpt lat="36.592730" lon="-118.751120">
        <ele>2098.915</ele>
        <time>2018-12-30T12:07:55Z</time>
      </trkpt>
      <trkpt lat="36.592530" lon="-118.751240">
        <ele>2099.608</ele>
        <time>2018-12-30T12:08:15Z</time>
      </trkpt>
      <trkpt lat="36.592360" lon="-118.751340">
        <ele>2099.910</ele>
        <time>2018-12-30T12:08:35Z</time>
      </trkpt>
      <trkpt lat="36.592140" lon="-118.751450">
        <ele>2100.348</ele>
        <time>2018-12-30T12:08:55Z</time>
      </trkpt>
      <trkpt lat="36.591940" lon="-118.751560">
        <ele>2100.043</ele>
        <time>2018-12-30T12:09:15Z</time>
      </trkpt>
      <trkpt lat="36.591800" lon="-118.751640">
        <ele>2099.523</ele>
        <time>2018-12-30T12:09:35Z</time>
      </trkpt>
      <trkpt lat="36.591610" lon="-118.751740">
        <ele>2099.427</ele>
        <time>2018-12-30T12:09:55Z</time>
      </trkpt>
      <trkpt lat="36.591470" lon="-118.751810">
        <ele>2099.267</ele>
        <time>2018-12-30T12:10:15Z</time>
      </trkpt>
      <trkpt lat="36.591340" lon="-118.751880">
        <ele>2098.373</ele>
        <time>2018-12-30T12:10:35Z</time>
      </trkpt>
      <trkpt lat="36.591170" lon="-118.751960">
        <ele>2097.752</ele>
        <time>2018-12-30T12:10:55Z</time>
      </trkpt>
      <trkpt lat="36.591030" lon="-118.752020">
        <ele>2098.086</ele>
        <time>2018-12-30T12:11:15Z</time>
      </trkpt>
      <trkpt lat="36.590960" lon="-118.752050">
        <ele>2098.160</ele>
        <time>2018-12-30T12:11:35Z</time>
      </trkpt>
      <trkpt lat="36.590890" lon="-118.752080">
        <ele>2097.826</ele>
        <time>2018-12-30T12:11:55Z</time>
      </trkpt>
      <trkpt lat="36.590780" lon="-118.752120">
        <ele>2097.208</ele>
        <time>2018-12-30T12:12:15Z</time>
      </trkpt>
      <trkpt lat="36.590690" lon="-118.752150">
        <ele>2096.971</ele>
        <time>2018-12-30T12:12:35Z</time>
      </trkpt>
      <trkpt lat="36.590620" lon="-118.752170">
        <ele>2096.779</ele>
        <time>2018-12-30T12:12:55Z</time>
      </trkpt>
      <trkpt lat="36.590510" lon="-118.752200">
        <ele>2096.734</ele>
        <time>2018-12-30T12:13:15Z</time>
      </trkpt>
      <trkpt lat="36.590410" lon="-118.752230">
        <ele>2096.734</ele>
        <time>2018-12-30T12:13:35Z</time>
      </trkpt>
      <trkpt lat="36.590340" lon="-118.752240">
        <ele>2096.998</ele>
        <time>2018-12-30T12:13:55Z</time>
      </trkpt>
      <trkpt lat="36.590260" lon="-118.752250">
        <ele>2097.268</ele>
        <time>2018-12-30T12:14:15Z</time>
      </trkpt>
      <trkpt lat="36.590180" lon="-118.752260">
        <ele>2097.544</ele>
        <time>2018-12-30T12:14:35Z</time>
      </trkpt>
      <trkpt lat="36.590080" lon="-118.752280">
        <ele>2097.583</ele>
        <time>2018-12-30T12:14:55Z</time>
      </trkpt>
      <trkpt lat="36.589930" lon="-118.752290">
        <ele>2098.243</ele>
        <time>2018-12-30T12:15:15Z</time>
      </trkpt>
      <trkpt lat="36.589540" lon="-118.752310">
        <ele>2098.664</ele>
        <time>2018-12-30T12:15:35Z</time>
      </trkpt>
      <trkpt lat="36.589000" lon="-118.752350">
        <ele>2094.010</ele>
        <time>2018-12-30T12:15:55Z</time>
      </trkpt>
      <trkpt lat="36.588450" lon="-118.752380">
        <ele>2089.908</ele>
        <time>2018-12-30T12:16:15Z</time>
      </trkpt>
      <trkpt lat="36.588220" lon="-118.752390">
        <ele>2087.977</ele>
        <time>2018-12-30T12:16:35Z</time>
      </trkpt>
      <trkpt lat="36.588060" lon="-118.752390">
        <ele>2087.695</ele>
        <time>2018-12-30T12:16:55Z</time>
      </trkpt>
      <trkpt lat="36.587870" lon="-118.752400">
        <ele>2087.090</ele>
        <time>2018-12-30T12:17:15Z</time>
      </trkpt>
      <trkpt lat="36.587700" lon="-118.752410">
        <ele>2086.320</ele>
        <time>2018-12-30T12:17:35Z</time>
      </trkpt>
      <trkpt lat="36.587600" lon="-118.752410">
        <ele>2085.954</ele>
        <time>2018-12-30T12:17:55Z</time>
      </trkpt>
      <trkpt lat="36.587480" lon="-118.752410">
        <ele>2085.444</ele>
        <time>2018-12-30T12:18:15Z</time>
      </trkpt>
      <trkpt lat="36.587320" lon="-118.752410">
        <ele>2084.580</ele>
        <time>2018-12-30T12:18:35Z</time>
      </trkpt>
      <trkpt lat="36.586960" lon="-118.752380">
        <ele>2082.599</ele>
        <time>2018-12-30T12:18:55Z</time>
      </trkpt>
      <trkpt lat="36.586730" lon="-118.752360">
        <ele>2079.469</ele>
        <time>2018-12-30T12:19:15Z</time>
      </trkpt>
      <trkpt lat="36.586610" lon="-118.752360">
        <ele>2076.304</ele>
        <time>2018-12-30T12:19:35Z</time>
      </trkpt>
      <trkpt lat="36.586510" lon="-118.752360">
        <ele>2074.524</ele>
        <time>2018-12-30T12:19:55Z</time>
      </trkpt>
      <trkpt lat="36.586470" lon="-118.752360">
        <ele>2075.108</ele>
        <time>2018-12-30T12:20:15Z</time>
      </trkpt>
      <trkpt lat="36.586430" lon="-118.752370">
        <ele>2075.259</ele>
        <time>2018-12-30T12:20:35Z</time>
      </trkpt>
      <trkpt lat="36.586370" lon="-118.752380">
        <ele>2075.827</ele>
        <time>2018-12-30T12:20:55Z</time>
      </trkpt>
      <trkpt lat="36.586310" lon="-118.752400">
        <ele>2076.222</ele>
        <time>2018-12-30T12:21:15Z</time>
      </trkpt>
      <trkpt lat="36.586230" lon="-118.752420">
        <ele>2077.492</ele>
        <time>2018-12-30T12:21:35Z</time>
      </trkpt>
      <trkpt lat="36.586150" lon="-118.752460">
        <ele>2079.086</ele>
        <time>2018-12-30T12:21:55Z</time>
      </trkpt>
      <trkpt lat="36.586100" lon="-118.752480">
        <ele>2080.256</ele>
        <time>2018-12-30T12:22:15Z</time>
      </trkpt>
      <trkpt lat="36.586040" lon="-118.752510">
        <ele>2081.552</ele>
        <time>2018-12-30T12:22:35Z</time>
      </trkpt>
      <trkpt lat="36.586000" lon="-118.752530">
        <ele>2082.441</ele>
        <time>2018-12-30T12:22:55Z</time>
      </trkpt>
      <trkpt lat="36.585930" lon="-118.752570">
        <ele>2083.057</ele>
        <time>2018-12-30T12:23:15Z</time>
      </trkpt>
      <trkpt lat="36.585860" lon="-118.752600">
        <ele>2083.600</ele>
        <time>2018-12-30T12:23:35Z</time>
      </trkpt>
      <trkpt lat="36.585820" lon="-118.752620">
        <ele>2083.820</ele>
        <time>2018-12-30T12:23:55Z</time>
      </trkpt>
      <trkpt lat="36.585790" lon="-118.752640">
        <ele>2083.908</ele>
        <time>2018-12-30T12:24:15Z</time>
      </trkpt>
      <trkpt lat="36.585730" lon="-118.752660">
        <ele>2084.458</ele>
        <time>2018-12-30T12:24:35Z</time>
      </trkpt>
      <trkpt lat="36.585690" lon="-118.752670">
        <ele>2084.866</ele>
        <time>2018-12-30T12:24:55Z</time>
      </trkpt>
      <trkpt lat="36.585640" lon="-118.752690">
        <ele>2084.661</ele>
        <time>2018-12-30T12:25:15Z</time>
      </trkpt>
      <trkpt lat="36.585570" lon="-118.752700">
        <ele>2084.851</ele>
        <time>2018-12-30T12:25:35Z</time>
      </trkpt>
      <trkpt lat="36.585510" lon="-118.752720">
        <ele>2084.745</ele>
        <time>2018-12-30T12:25:55Z</time>
      </trkpt>
      <trkpt lat="36.585450" lon="-118.752730">
        <ele>2084.965</ele>
        <time>2018-12-30T12:26:15Z</time>
      </trkpt>
      <trkpt lat="36.585390" lon="-118.752740">
        <ele>2085.171</ele>
        <time>2018-12-30T12:26:35Z</time>
      </trkpt>
      <trkpt lat="36.585300" lon="-118.752750">
        <ele>2085.480</ele>
        <time>2018-12-30T12:26:55Z</time>
      </trkpt>
      <trkpt lat="36.585180" lon="-118.752770">
        <ele>2085.751</ele>
        <time>2018-12-30T12:27:15Z</time>
      </trkpt>
      <trkpt lat="36.585100" lon="-118.752780">
        <ele>2086.301</ele>
        <time>2018-12-30T12:27:35Z</time>
      </trkpt>
      <trkpt lat="36.585030" lon="-118.752800">
        <ele>2086.811</ele>
        <time>2018-12-30T12:27:55Z</time>
      </trkpt>
      <trkpt lat="36.584960" lon="-118.752820">
        <ele>2087.308</ele>
        <time>2018-12-30T12:28:15Z</time>
      </trkpt>
      <trkpt lat="36.584850" lon="-118.752850">
        <ele>2088.398</ele>
        <time>2018-12-30T12:28:35Z</time>
      </trkpt>
      <trkpt lat="36.584780" lon="-118.752870">
        <ele>2088.696</ele>
        <time>2018-12-30T12:28:55Z</time>
      </trkpt>
      <trkpt lat="36.584710" lon="-118.752900">
        <ele>2088.681</ele>
        <time>2018-12-30T12:29:15Z</time>
      </trkpt>
      <trkpt lat="36.584620" lon="-118.752940">
        <ele>2088.371</ele>
        <time>2018-12-30T12:29:35Z</time>
      </trkpt>
      <trkpt lat="36.584560" lon="-118.752970">
        <ele>2088.025</ele>
        <time>2018-12-30T12:29:55Z</time>
      </trkpt>
      <trkpt lat="36.584440" lon="-118.753030">
        <ele>2087.925</ele>
        <time>2018-12-30T12:30:15Z</time>
      </trkpt>
      <trkpt lat="36.584370" lon="-118.753070">
        <ele>2087.981</ele>
        <time>2018-12-30T12:30:35Z</time>
      </trkpt>
      <trkpt lat="36.584320" lon="-118.753100">
        <ele>2088.030</ele>
        <time>2018-12-30T12:30:55Z</time>
      </trkpt>
      <trkpt lat="36.584210" lon="-118.753160">
        <ele>2088.299</ele>
        <time>2018-12-30T12:31:15Z</time>
      </trkpt>
      <trkpt lat="36.584120" lon="-118.753210">
        <ele>2088.307</ele>
        <time>2018-12-30T12:31:35Z</time>
      </trkpt>
      <trkpt lat="36.584010" lon="-118.753270">
        <ele>2088.327</ele>
        <time>2018-12-30T12:31:55Z</time>
      </trkpt>
      <trkpt lat="36.583920" lon="-118.753320">
        <ele>2088.008</ele>
        <time>2018-12-30T12:32:15Z</time>
      </trkpt>
      <trkpt lat="36.583860" lon="-118.753350">
        <ele>2087.982</ele>
        <time>2018-12-30T12:32:35Z</time>
      </trkpt>
      <trkpt lat="36.583800" lon="-118.753380">
        <ele>2087.990</ele>
        <time>2018-12-30T12:32:55Z</time>
      </trkpt>
      <trkpt lat="36.583700" lon="-118.753430">
        <ele>2087.685</ele>
        <time>2018-12-30T12:33:15Z</time>
      </trkpt>
      <trkpt lat="36.583630" lon="-118.753450">
        <ele>2087.695</ele>
        <time>2018-12-30T12:33:35Z</time>
      </trkpt>
      <trkpt lat="36.583570" lon="-118.753480">
        <ele>2087.129</ele>
        <time>2018-12-30T12:33:55Z</time>
      </trkpt>
      <trkpt lat="36.583420" lon="-118.753540">
        <ele>2086.079</ele>
        <time>2018-12-30T12:34:15Z</time>
      </trkpt>
      <trkpt lat="36.583290" lon="-118.753590">
        <ele>2085.245</ele>
        <time>2018-12-30T12:34:35Z</time>
      </trkpt>
      <trkpt lat="36.583170" lon="-118.753630">
        <ele>2084.554</ele>
        <time>2018-12-30T12:34:55Z</time>
      </trkpt>
      <trkpt lat="36.583040" lon="-118.753660">
        <ele>2082.962</ele>
        <time>2018-12-30T12:35:15Z</time>
      </trkpt>
      <trkpt lat="36.582970" lon="-118.753680">
        <ele>2082.283</ele>
        <time>2018-12-30T12:35:35Z</time>
      </trkpt>
      <trkpt lat="36.582900" lon="-118.753690">
        <ele>2081.711</ele>
        <time>2018-12-30T12:35:55Z</time>
      </trkpt>
      <trkpt lat="36.582830" lon="-118.753700">
        <ele>2081.208</ele>
        <time>2018-12-30T12:36:15Z</time>
      </trkpt>
      <trkpt lat="36.582760" lon="-118.753710">
        <ele>2080.899</ele>
        <time>2018-12-30T12:36:35Z</time>
      </trkpt>
      <trkpt lat="36.582700" lon="-118.753710">
        <ele>2080.537</ele>
        <time>2018-12-30T12:36:55Z</time>
      </trkpt>
      <trkpt lat="36.582650" lon="-118.753720">
        <ele>2080.192</ele>
        <time>2018-12-30T12:37:15Z</time>
      </trkpt>
      <trkpt lat="36.582590" lon="-118.753720">
        <ele>2079.972</ele>
        <time>2018-12-30T12:37:35Z</time>
      </trkpt>
      <trkpt lat="36.582540" lon="-118.753720">
        <ele>2079.736</ele>
        <time>2018-12-30T12:37:55Z</time>
      </trkpt>
      <trkpt lat="36.582490" lon="-118.753720">
        <ele>2079.566</ele>
        <time>2018-12-30T12:38:15Z</time>
      </trkpt>
      <trkpt lat="36.582450" lon="-118.753720">
        <ele>2079.382</ele>
        <time>2018-12-30T12:38:35Z</time>
      </trkpt>
      <trkpt lat="36.582380" lon="-118.753710">
        <ele>2079.271</ele>
        <time>2018-12-30T12:38:55Z</time>
      </trkpt>
      <trkpt lat="36.582310" lon="-118.753700">
        <ele>2079.121</ele>
        <time>2018-12-30T12:39:15Z</time>
      </trkpt>
      <trkpt lat="36.582250" lon="-118.753690">
        <ele>2079.141</ele>
        <time>2018-12-30T12:39:35Z</time>
      </trkpt>
      <trkpt lat="36.582190" lon="-118.753670">
        <ele>2079.205</ele>
        <time>2018-12-30T12:39:55Z</time>
      </trkpt>
      <trkpt lat="36.582130" lon="-118.753660">
        <ele>2079.108</ele>
        <time>2018-12-30T12:40:15Z</time>
      </trkpt>
      <trkpt lat="36.582060" lon="-118.753640">
        <ele>2079.195</ele>
        <time>2018-12-30T12:40:35Z</time>
      </trkpt>
      <trkpt lat="36.581950" lon="-118.753610">
        <ele>2079.133</ele>
        <time>2018-12-30T12:40:55Z</time>
      </trkpt>
      <trkpt lat="36.581890" lon="-118.753590">
        <ele>2079.138</ele>
        <time>2018-12-30T12:41:15Z</time>
      </trkpt>
      <trkpt lat="36.581850" lon="-118.753570">
        <ele>2079.288</ele>
        <time>2018-12-30T12:41:35Z</time>
      </trkpt>
      <trkpt lat="36.581790" lon="-118.753550">
        <ele>2079.292</ele>
        <time>2018-12-30T12:41:55Z</time>
      </trkpt>
      <trkpt lat="36.581710" lon="-118.753510">
        <ele>2079.272</ele>
        <time>2018-12-30T12:42:15Z</time>
      </trkpt>
      <trkpt lat="36.581650" lon="-118.753480">
        <ele>2079.298</ele>
        <time>2018-12-30T12:42:35Z</time>
      </trkpt>
      <trkpt lat="36.581590" lon="-118.753440">
        <ele>2079.327</ele>
        <time>2018-12-30T12:42:55Z</time>
      </trkpt>
      <trkpt lat="36.581560" lon="-118.753410">
        <ele>2079.558</ele>
        <time>2018-12-30T12:43:15Z</time>
      </trkpt>
      <trkpt lat="36.581520" lon="-118.753380">
        <ele>2079.652</ele>
        <time>2018-12-30T12:43:35Z</time>
      </trkpt>
      <trkpt lat="36.581480" lon="-118.753350">
        <ele>2079.517</ele>
        <time>2018-12-30T12:43:55Z</time>
      </trkpt>
      <trkpt lat="36.581440" lon="-118.753310">
        <ele>2079.608</ele>
        <time>2018-12-30T12:44:15Z</time>
      </trkpt>
      <trkpt lat="36.581390" lon="-118.753250">
        <ele>2079.768</ele>
        <time>2018-12-30T12:44:35Z</time>
      </trkpt>
      <trkpt lat="36.581350" lon="-118.753200">
        <ele>2079.856</ele>
        <time>2018-12-30T12:44:55Z</time>
      </trkpt>
      <trkpt lat="36.581310" lon="-118.753150">
        <ele>2079.781</ele>
        <time>2018-12-30T12:45:15Z</time>
      </trkpt>
      <trkpt lat="36.581290" lon="-118.753120">
        <ele>2079.791</ele>
        <time>2018-12-30T12:45:35Z</time>
      </trkpt>
      <trkpt lat="36.581260" lon="-118.753080">
        <ele>2079.665</ele>
        <time>2018-12-30T12:45:55Z</time>
      </trkpt>
      <trkpt lat="36.581230" lon="-118.753030">
        <ele>2079.545</ele>
        <time>2018-12-30T12:46:15Z</time>
      </trkpt>
      <trkpt lat="36.581200" lon="-118.752980">
        <ele>2079.591</ele>
        <time>2018-12-30T12:46:35Z</time>
      </trkpt>
      <trkpt lat="36.581170" lon="-118.752920">
        <ele>2079.530</ele>
        <time>2018-12-30T12:46:55Z</time>
      </trkpt>
      <trkpt lat="36.581100" lon="-118.752780">
        <ele>2078.954</ele>
        <time>2018-12-30T12:47:15Z</time>
      </trkpt>
      <trkpt lat="36.581060" lon="-118.752680">
        <ele>2078.656</ele>
        <time>2018-12-30T12:47:35Z</time>
      </trkpt>
      <trkpt lat="36.581020" lon="-118.752620">
        <ele>2078.211</ele>
        <time>2018-12-30T12:47:55Z</time>
      </trkpt>
      <trkpt lat="36.580990" lon="-118.752570">
        <ele>2078.008</ele>
        <time>2018-12-30T12:48:15Z</time>
      </trkpt>
      <trkpt lat="36.580960" lon="-118.752520">
        <ele>2077.768</ele>
        <time>2018-12-30T12:48:35Z</time>
      </trkpt>
      <trkpt lat="36.580920" lon="-118.752470">
        <ele>2077.436</ele>
        <time>2018-12-30T12:48:55Z</time>
      </trkpt>
      <trkpt lat="36.580820" lon="-118.752340">
        <ele>2077.061</ele>
        <time>2018-12-30T12:49:15Z</time>
      </trkpt>
      <trkpt lat="36.580780" lon="-118.752300">
        <ele>2077.041</ele>
        <time>2018-12-30T12:49:35Z</time>
      </trkpt>
      <trkpt lat="36.580750" lon="-118.752260">
        <ele>2077.375</ele>
        <time>2018-12-30T12:49:55Z</time>
      </trkpt>
      <trkpt lat="36.580700" lon="-118.752220">
        <ele>2077.445</ele>
        <time>2018-12-30T12:50:15Z</time>
      </trkpt>
      <trkpt lat="36.580660" lon="-118.752200">
        <ele>2077.321</ele>
        <time>2018-12-30T12:50:35Z</time>
      </trkpt>
      <trkpt lat="36.580650" lon="-118.752190">
        <ele>2077.320</ele>
        <time>2018-12-30T12:50:55Z</time>
      </trkpt>
      <trkpt lat="36.580630" lon="-118.752170">
        <ele>2077.426</ele>
        <time>2018-12-30T12:51:15Z</time>
      </trkpt>
      <trkpt lat="36.580600" lon="-118.752160">
        <ele>2077.247</ele>
        <time>2018-12-30T12:51:35Z</time>
      </trkpt>
      <trkpt lat="36.580560" lon="-118.752140">
        <ele>2077.111</ele>
        <time>2018-12-30T12:51:55Z</time>
      </trkpt>
      <trkpt lat="36.580480" lon="-118.752110">
        <ele>2076.608</ele>
        <time>2018-12-30T12:52:15Z</time>
      </trkpt>
      <trkpt lat="36.580370" lon="-118.752080">
        <ele>2075.855</ele>
        <time>2018-12-30T12:52:35Z</time>
      </trkpt>
      <trkpt lat="36.580310" lon="-118.752040">
        <ele>2075.833</ele>
        <time>2018-12-30T12:52:55Z</time>
      </trkpt>
      <trkpt lat="36.580280" lon="-118.752020">
        <ele>2075.838</ele>
        <time>2018-12-30T12:53:15Z</time>
      </trkpt>
      <trkpt lat="36.580250" lon="-118.752000">
        <ele>2075.848</ele>
        <time>2018-12-30T12:53:35Z</time>
      </trkpt>
      <trkpt lat="36.580200" lon="-118.751970">
        <ele>2075.712</ele>
        <time>2018-12-30T12:53:55Z</time>
      </trkpt>
      <trkpt lat="36.580150" lon="-118.751930">
        <ele>2075.832</ele>
        <time>2018-12-30T12:54:15Z</time>
      </trkpt>
      <trkpt lat="36.580110" lon="-118.751880">
        <ele>2076.068</ele>
        <time>2018-12-30T12:54:35Z</time>
      </trkpt>
      <trkpt lat="36.580040" lon="-118.751800">
        <ele>2076.567</ele>
        <time>2018-12-30T12:54:55Z</time>
      </trkpt>
      <trkpt lat="36.580000" lon="-118.751750">
        <ele>2077.026</ele>
        <time>2018-12-30T12:55:15Z</time>
      </trkpt>
      <trkpt lat="36.579930" lon="-118.751660">
        <ele>2077.947</ele>
        <time>2018-12-30T12:55:35Z</time>
      </trkpt>
      <trkpt lat="36.579920" lon="-118.751640">
        <ele>2078.211</ele>
        <time>2018-12-30T12:55:55Z</time>
      </trkpt>
      <trkpt lat="36.579890" lon="-118.751610">
        <ele>2078.508</ele>
        <time>2018-12-30T12:56:15Z</time>
      </trkpt>
      <trkpt lat="36.579860" lon="-118.751580">
        <ele>2078.885</ele>
        <time>2018-12-30T12:56:35Z</time>
      </trkpt>
      <trkpt lat="36.579830" lon="-118.751570">
        <ele>2078.863</ele>
        <time>2018-12-30T12:56:55Z</time>
      </trkpt>
      <trkpt lat="36.579810" lon="-118.751550">
        <ele>2079.138</ele>
        <time>2018-12-30T12:57:15Z</time>
      </trkpt>
      <trkpt lat="36.579750" lon="-118.751530">
        <ele>2079.138</ele>
        <time>2018-12-30T12:57:35Z</time>
      </trkpt>
      <trkpt lat="36.579700" lon="-118.751520">
        <ele>2079.052</ele>
        <time>2018-12-30T12:57:55Z</time>
      </trkpt>
      <trkpt lat="36.579640" lon="-118.751530">
        <ele>2078.332</ele>
        <time>2018-12-30T12:58:15Z</time>
      </trkpt>
      <trkpt lat="36.579600" lon="-118.751540">
        <ele>2077.948</ele>
        <time>2018-12-30T12:58:35Z</time>
      </trkpt>
      <trkpt lat="36.579550" lon="-118.751570">
        <ele>2077.227</ele>
        <time>2018-12-30T12:58:55Z</time>
      </trkpt>
      <trkpt lat="36.579520" lon="-118.751590">
        <ele>2076.866</ele>
        <time>2018-12-30T12:59:15Z</time>
      </trkpt>
      <trkpt lat="36.579500" lon="-118.751620">
        <ele>2076.129</ele>
        <time>2018-12-30T12:59:35Z</time>
      </trkpt>
      <trkpt lat="36.579450" lon="-118.751670">
        <ele>2074.821</ele>
        <time>2018-12-30T12:59:55Z</time>
      </trkpt>
      <trkpt lat="36.579430" lon="-118.751710">
        <ele>2073.708</ele>
        <time>2018-12-30T13:00:15Z</time>
      </trkpt>
      <trkpt lat="36.579410" lon="-118.751740">
        <ele>2072.819</ele>
        <time>2018-12-30T13:00:35Z</time>
      </trkpt>
      <trkpt lat="36.579360" lon="-118.751820">
        <ele>2070.237</ele>
        <time>2018-12-30T13:00:55Z</time>
      </trkpt>
      <trkpt lat="36.579300" lon="-118.751950">
        <ele>2067.442</ele>
        <time>2018-12-30T13:01:15Z</time>
      </trkpt>
      <trkpt lat="36.579270" lon="-118.752010">
        <ele>2066.842</ele>
        <time>2018-12-30T13:01:35Z</time>
      </trkpt>
      <trkpt lat="36.579250" lon="-118.752050">
        <ele>2066.316</ele>
        <time>2018-12-30T13:01:55Z</time>
      </trkpt>
      <trkpt lat="36.579210" lon="-118.752130">
        <ele>2064.816</ele>
        <time>2018-12-30T13:02:15Z</time>
      </trkpt>
      <trkpt lat="36.579150" lon="-118.752210">
        <ele>2063.682</ele>
        <time>2018-12-30T13:02:35Z</time>
      </trkpt>
      <trkpt lat="36.579100" lon="-118.752290">
        <ele>2062.691</ele>
        <time>2018-12-30T13:02:55Z</time>
      </trkpt>
      <trkpt lat="36.579050" lon="-118.752340">
        <ele>2062.579</ele>
        <time>2018-12-30T13:03:15Z</time>
      </trkpt>
      <trkpt lat="36.579010" lon="-118.752390">
        <ele>2061.905</ele>
        <time>2018-12-30T13:03:35Z</time>
      </trkpt>
      <trkpt lat="36.578970" lon="-118.752430">
        <ele>2061.325</ele>
        <time>2018-12-30T13:03:55Z</time>
      </trkpt>
      <trkpt lat="36.578920" lon="-118.752460">
        <ele>2061.308</ele>
        <time>2018-12-30T13:04:15Z</time>
      </trkpt>
      <trkpt lat="36.578880" lon="-118.752490">
        <ele>2061.360</ele>
        <time>2018-12-30T13:04:35Z</time>
      </trkpt>
      <trkpt lat="36.578840" lon="-118.752510">
        <ele>2061.748</ele>
        <time>2018-12-30T13:04:55Z</time>
      </trkpt>
      <trkpt lat="36.578800" lon="-118.752530">
        <ele>2062.133</ele>
        <time>2018-12-30T13:05:15Z</time>
      </trkpt>
      <trkpt lat="36.578740" lon="-118.752560">
        <ele>2062.863</ele>
        <time>2018-12-30T13:05:35Z</time>
      </trkpt>
      <trkpt lat="36.578680" lon="-118.752590">
        <ele>2063.097</ele>
        <time>2018-12-30T13:05:55Z</time>
      </trkpt>
      <trkpt lat="36.578590" lon="-118.752630">
        <ele>2063.597</ele>
        <time>2018-12-30T13:06:15Z</time>
      </trkpt>
      <trkpt lat="36.578540" lon="-118.752650">
        <ele>2063.723</ele>
        <time>2018-12-30T13:06:35Z</time>
      </trkpt>
      <trkpt lat="36.578480" lon="-118.752670">
        <ele>2063.922</ele>
        <time>2018-12-30T13:06:55Z</time>
      </trkpt>
      <trkpt lat="36.578340" lon="-118.752710">
        <ele>2064.527</ele>
        <time>2018-12-30T13:07:15Z</time>
      </trkpt>
      <trkpt lat="36.578270" lon="-118.752730">
        <ele>2064.768</ele>
        <time>2018-12-30T13:07:35Z</time>
      </trkpt>
      <trkpt lat="36.578200" lon="-118.752760">
        <ele>2064.614</ele>
        <time>2018-12-30T13:07:55Z</time>
      </trkpt>
      <trkpt lat="36.578110" lon="-118.752810">
        <ele>2064.008</ele>
        <time>2018-12-30T13:08:15Z</time>
      </trkpt>
      <trkpt lat="36.578020" lon="-118.752860">
        <ele>2063.885</ele>
        <time>2018-12-30T13:08:35Z</time>
      </trkpt>
      <trkpt lat="36.577950" lon="-118.752910">
        <ele>2063.483</ele>
        <time>2018-12-30T13:08:55Z</time>
      </trkpt>
      <trkpt lat="36.577920" lon="-118.752940">
        <ele>2062.768</ele>
        <time>2018-12-30T13:09:15Z</time>
      </trkpt>
      <trkpt lat="36.577890" lon="-118.752960">
        <ele>2061.648</ele>
        <time>2018-12-30T13:09:35Z</time>
      </trkpt>
      <trkpt lat="36.577860" lon="-118.752980">
        <ele>2060.592</ele>
        <time>2018-12-30T13:09:55Z</time>
      </trkpt>
      <trkpt lat="36.577830" lon="-118.753020">
        <ele>2058.742</ele>
        <time>2018-12-30T13:10:15Z</time>
      </trkpt>
      <trkpt lat="36.577800" lon="-118.753050">
        <ele>2057.448</ele>
        <time>2018-12-30T13:10:35Z</time>
      </trkpt>
      <trkpt lat="36.577770" lon="-118.753090">
        <ele>2055.847</ele>
        <time>2018-12-30T13:10:55Z</time>
      </trkpt>
      <trkpt lat="36.577730" lon="-118.753150">
        <ele>2053.771</ele>
        <time>2018-12-30T13:11:15Z</time>
      </trkpt>
      <trkpt lat="36.577680" lon="-118.753220">
        <ele>2051.741</ele>
        <time>2018-12-30T13:11:35Z</time>
      </trkpt>
      <trkpt lat="36.577630" lon="-118.753290">
        <ele>2050.915</ele>
        <time>2018-12-30T13:11:55Z</time>
      </trkpt>
      <trkpt lat="36.577550" lon="-118.753390">
        <ele>2052.208</ele>
        <time>2018-12-30T13:12:15Z</time>
      </trkpt>
      <trkpt lat="36.577500" lon="-118.753450">
        <ele>2053.380</ele>
        <time>2018-12-30T13:12:35Z</time>
      </trkpt>
      <trkpt lat="36.577470" lon="-118.753480">
        <ele>2054.148</ele>
        <time>2018-12-30T13:12:55Z</time>
      </trkpt>
      <trkpt lat="36.577430" lon="-118.753520">
        <ele>2055.253</ele>
        <time>2018-12-30T13:13:15Z</time>
      </trkpt>
      <trkpt lat="36.577380" lon="-118.753570">
        <ele>2056.713</ele>
        <time>2018-12-30T13:13:35Z</time>
      </trkpt>
      <trkpt lat="36.577330" lon="-118.753620">
        <ele>2058.037</ele>
        <time>2018-12-30T13:13:55Z</time>
      </trkpt>
      <trkpt lat="36.577280" lon="-118.753670">
        <ele>2059.237</ele>
        <time>2018-12-30T13:14:15Z</time>
      </trkpt>
      <trkpt lat="36.577240" lon="-118.753730">
        <ele>2059.893</ele>
        <time>2018-12-30T13:14:35Z</time>
      </trkpt>
      <trkpt lat="36.577180" lon="-118.753840">
        <ele>2060.962</ele>
        <time>2018-12-30T13:14:55Z</time>
      </trkpt>
      <trkpt lat="36.577140" lon="-118.753930">
        <ele>2061.654</ele>
        <time>2018-12-30T13:15:15Z</time>
      </trkpt>
      <trkpt lat="36.577110" lon="-118.754010">
        <ele>2062.156</ele>
        <time>2018-12-30T13:15:35Z</time>
      </trkpt>
      <trkpt lat="36.577100" lon="-118.754070">
        <ele>2062.111</ele>
        <time>2018-12-30T13:15:55Z</time>
      </trkpt>
      <trkpt lat="36.577090" lon="-118.754120">
        <ele>2062.108</ele>
        <time>2018-12-30T13:16:15Z</time>
      </trkpt>
      <trkpt lat="36.577090" lon="-118.754160">
        <ele>2061.758</ele>
        <time>2018-12-30T13:16:35Z</time>
      </trkpt>
      <trkpt lat="36.577090" lon="-118.754220">
        <ele>2061.336</ele>
        <time>2018-12-30T13:16:55Z</time>
      </trkpt>
      <trkpt lat="36.577100" lon="-118.754280">
        <ele>2060.441</ele>
        <time>2018-12-30T13:17:15Z</time>
      </trkpt>
      <trkpt lat="36.577110" lon="-118.754350">
        <ele>2059.281</ele>
        <time>2018-12-30T13:17:35Z</time>
      </trkpt>
      <trkpt lat="36.577130" lon="-118.754480">
        <ele>2056.975</ele>
        <time>2018-12-30T13:17:55Z</time>
      </trkpt>
      <trkpt lat="36.577130" lon="-118.754540">
        <ele>2056.235</ele>
        <time>2018-12-30T13:18:15Z</time>
      </trkpt>
      <trkpt lat="36.577130" lon="-118.754580">
        <ele>2055.731</ele>
        <time>2018-12-30T13:18:35Z</time>
      </trkpt>
      <trkpt lat="36.577130" lon="-118.754620">
        <ele>2055.270</ele>
        <time>2018-12-30T13:18:55Z</time>
      </trkpt>
      <trkpt lat="36.577130" lon="-118.754680">
        <ele>2054.481</ele>
        <time>2018-12-30T13:19:15Z</time>
      </trkpt>
      <trkpt lat="36.577120" lon="-118.754730">
        <ele>2054.061</ele>
        <time>2018-12-30T13:19:35Z</time>
      </trkpt>
      <trkpt lat="36.577110" lon="-118.754780">
        <ele>2053.717</ele>
        <time>2018-12-30T13:19:55Z</time>
      </trkpt>
      <trkpt lat="36.577090" lon="-118.754830">
        <ele>2053.708</ele>
        <time>2018-12-30T13:20:15Z</time>
      </trkpt>
      <trkpt lat="36.577060" lon="-118.754890">
        <ele>2053.851</ele>
        <time>2018-12-30T13:20:35Z</time>
      </trkpt>
      <trkpt lat="36.577030" lon="-118.754940">
        <ele>2054.039</ele>
        <time>2018-12-30T13:20:55Z</time>
      </trkpt>
      <trkpt lat="36.577000" lon="-118.754990">
        <ele>2054.244</ele>
        <time>2018-12-30T13:21:15Z</time>
      </trkpt>
      <trkpt lat="36.576970" lon="-118.755030">
        <ele>2054.554</ele>
        <time>2018-12-30T13:21:35Z</time>
      </trkpt>
      <trkpt lat="36.576930" lon="-118.755080">
        <ele>2054.978</ele>
        <time>2018-12-30T13:21:55Z</time>
      </trkpt>
      <trkpt lat="36.576900" lon="-118.755130">
        <ele>2055.048</ele>
        <time>2018-12-30T13:22:15Z</time>
      </trkpt>
      <trkpt lat="36.576850" lon="-118.755190">
        <ele>2055.414</ele>
        <time>2018-12-30T13:22:35Z</time>
      </trkpt>
      <trkpt lat="36.576810" lon="-118.755240">
        <ele>2055.653</ele>
        <time>2018-12-30T13:22:55Z</time>
      </trkpt>
      <trkpt lat="36.576750" lon="-118.755310">
        <ele>2055.952</ele>
        <time>2018-12-30T13:23:15Z</time>
      </trkpt>
      <trkpt lat="36.576670" lon="-118.755390">
        <ele>2056.653</ele>
        <time>2018-12-30T13:23:35Z</time>
      </trkpt>
      <trkpt lat="36.576630" lon="-118.755430">
        <ele>2057.008</ele>
        <time>2018-12-30T13:23:55Z</time>
      </trkpt>
      <trkpt lat="36.576580" lon="-118.755510">
        <ele>2056.908</ele>
        <time>2018-12-30T13:24:15Z</time>
      </trkpt>
      <trkpt lat="36.576540" lon="-118.755560">
        <ele>2057.368</ele>
        <time>2018-12-30T13:24:35Z</time>
      </trkpt>
      <trkpt lat="36.576490" lon="-118.755630">
        <ele>2057.566</ele>
        <time>2018-12-30T13:24:55Z</time>
      </trkpt>
      <trkpt lat="36.576460" lon="-118.755680">
        <ele>2057.661</ele>
        <time>2018-12-30T13:25:15Z</time>
      </trkpt>
      <trkpt lat="36.576430" lon="-118.755730">
        <ele>2058.151</ele>
        <time>2018-12-30T13:25:35Z</time>
      </trkpt>
      <trkpt lat="36.576400" lon="-118.755800">
        <ele>2058.775</ele>
        <time>2018-12-30T13:25:55Z</time>
      </trkpt>
      <trkpt lat="36.576380" lon="-118.755860">
        <ele>2059.125</ele>
        <time>2018-12-30T13:26:15Z</time>
      </trkpt>
      <trkpt lat="36.576370" lon="-118.755910">
        <ele>2059.211</ele>
        <time>2018-12-30T13:26:35Z</time>
      </trkpt>
      <trkpt lat="36.576360" lon="-118.755970">
        <ele>2059.330</ele>
        <time>2018-12-30T13:26:55Z</time>
      </trkpt>
      <trkpt lat="36.576350" lon="-118.756030">
        <ele>2059.837</ele>
        <time>2018-12-30T13:27:15Z</time>
      </trkpt>
      <trkpt lat="36.576350" lon="-118.756090">
        <ele>2059.949</ele>
        <time>2018-12-30T13:27:35Z</time>
      </trkpt>
      <trkpt lat="36.576360" lon="-118.756140">
        <ele>2059.713</ele>
        <time>2018-12-30T13:27:55Z</time>
      </trkpt>
      <trkpt lat="36.576360" lon="-118.756180">
        <ele>2059.708</ele>
        <time>2018-12-30T13:28:15Z</time>
      </trkpt>
      <trkpt lat="36.576370" lon="-118.756210">
        <ele>2059.526</ele>
        <time>2018-12-30T13:28:35Z</time>
      </trkpt>
      <trkpt lat="36.576380" lon="-118.756270">
        <ele>2059.384</ele>
        <time>2018-12-30T13:28:55Z</time>
      </trkpt>
      <trkpt lat="36.576400" lon="-118.756340">
        <ele>2058.969</ele>
        <time>2018-12-30T13:29:15Z</time>
      </trkpt>
      <trkpt lat="36.576430" lon="-118.756420">
        <ele>2058.349</ele>
        <time>2018-12-30T13:29:35Z</time>
      </trkpt>
      <trkpt lat="36.576470" lon="-118.756510">
        <ele>2057.463</ele>
        <time>2018-12-30T13:29:55Z</time>
      </trkpt>
      <trkpt lat="36.576500" lon="-118.756600">
        <ele>2056.673</ele>
        <time>2018-12-30T13:30:15Z</time>
      </trkpt>
      <trkpt lat="36.576530" lon="-118.756680">
        <ele>2055.859</ele>
        <time>2018-12-30T13:30:35Z</time>
      </trkpt>
      <trkpt lat="36.576540" lon="-118.756750">
        <ele>2055.528</ele>
        <time>2018-12-30T13:30:55Z</time>
      </trkpt>
      <trkpt lat="36.576550" lon="-118.756820">
        <ele>2055.161</ele>
        <time>2018-12-30T13:31:15Z</time>
      </trkpt>
      <trkpt lat="36.576550" lon="-118.756920">
        <ele>2054.221</ele>
        <time>2018-12-30T13:31:35Z</time>
      </trkpt>
      <trkpt lat="36.576540" lon="-118.756990">
        <ele>2053.713</ele>
        <time>2018-12-30T13:31:55Z</time>
      </trkpt>
      <trkpt lat="36.576530" lon="-118.757050">
        <ele>2053.208</ele>
        <time>2018-12-30T13:32:15Z</time>
      </trkpt>
      <trkpt lat="36.576520" lon="-118.757090">
        <ele>2052.929</ele>
        <time>2018-12-30T13:32:35Z</time>
      </trkpt>
      <trkpt lat="36.576500" lon="-118.757140">
        <ele>2052.447</ele>
        <time>2018-12-30T13:32:55Z</time>
      </trkpt>
      <trkpt lat="36.576470" lon="-118.757220">
        <ele>2051.522</ele>
        <time>2018-12-30T13:33:15Z</time>
      </trkpt>
      <trkpt lat="36.576430" lon="-118.757280">
        <ele>2050.992</ele>
        <time>2018-12-30T13:33:35Z</time>
      </trkpt>
      <trkpt lat="36.576390" lon="-118.757340">
        <ele>2050.246</ele>
        <time>2018-12-30T13:33:55Z</time>
      </trkpt>
      <trkpt lat="36.576350" lon="-118.757400">
        <ele>2049.046</ele>
        <time>2018-12-30T13:34:15Z</time>
      </trkpt>
      <trkpt lat="36.576310" lon="-118.757450">
        <ele>2047.892</ele>
        <time>2018-12-30T13:34:35Z</time>
      </trkpt>
      <trkpt lat="36.576280" lon="-118.757480">
        <ele>2047.131</ele>
        <time>2018-12-30T13:34:55Z</time>
      </trkpt>
      <trkpt lat="36.576250" lon="-118.757510">
        <ele>2046.565</ele>
        <time>2018-12-30T13:35:15Z</time>
      </trkpt>
      <trkpt lat="36.576200" lon="-118.757550">
        <ele>2045.668</ele>
        <time>2018-12-30T13:35:35Z</time>
      </trkpt>
      <trkpt lat="36.576130" lon="-118.757610">
        <ele>2044.414</ele>
        <time>2018-12-30T13:35:55Z</time>
      </trkpt>
      <trkpt lat="36.576070" lon="-118.757640">
        <ele>2044.108</ele>
        <time>2018-12-30T13:36:15Z</time>
      </trkpt>
      <trkpt lat="36.576020" lon="-118.757680">
        <ele>2043.629</ele>
        <time>2018-12-30T13:36:35Z</time>
      </trkpt>
      <trkpt lat="36.575940" lon="-118.757720">
        <ele>2043.977</ele>
        <time>2018-12-30T13:36:55Z</time>
      </trkpt>
      <trkpt lat="36.575810" lon="-118.757790">
        <ele>2044.632</ele>
        <time>2018-12-30T13:37:15Z</time>
      </trkpt>
      <trkpt lat="36.575670" lon="-118.757870">
        <ele>2045.542</ele>
        <time>2018-12-30T13:37:35Z</time>
      </trkpt>
      <trkpt lat="36.575620" lon="-118.757900">
        <ele>2046.026</ele>
        <time>2018-12-30T13:37:55Z</time>
      </trkpt>
      <trkpt lat="36.575580" lon="-118.757930">
        <ele>2046.296</ele>
        <time>2018-12-30T13:38:15Z</time>
      </trkpt>
      <trkpt lat="36.575530" lon="-118.757980">
        <ele>2046.352</ele>
        <time>2018-12-30T13:38:35Z</time>
      </trkpt>
      <trkpt lat="36.575480" lon="-118.758030">
        <ele>2046.691</ele>
        <time>2018-12-30T13:38:55Z</time>
      </trkpt>
      <trkpt lat="36.575450" lon="-118.758070">
        <ele>2046.687</ele>
        <time>2018-12-30T13:39:15Z</time>
      </trkpt>
      <trkpt lat="36.575420" lon="-118.758110">
        <ele>2046.642</ele>
        <time>2018-12-30T13:39:35Z</time>
      </trkpt>
      <trkpt lat="36.575390" lon="-118.758150">
        <ele>2046.826</ele>
        <time>2018-12-30T13:39:55Z</time>
      </trkpt>
      <trkpt lat="36.575370" lon="-118.758190">
        <ele>2046.608</ele>
        <time>2018-12-30T13:40:15Z</time>
      </trkpt>
      <trkpt lat="36.575330" lon="-118.758260">
        <ele>2046.931</ele>
        <time>2018-12-30T13:40:35Z</time>
      </trkpt>
      <trkpt lat="36.575280" lon="-118.758370">
        <ele>2047.259</ele>
        <time>2018-12-30T13:40:55Z</time>
      </trkpt>
      <trkpt lat="36.575260" lon="-118.758480">
        <ele>2046.814</ele>
        <time>2018-12-30T13:41:15Z</time>
      </trkpt>
      <trkpt lat="36.575230" lon="-118.758620">
        <ele>2046.564</ele>
        <time>2018-12-30T13:41:35Z</time>
      </trkpt>
      <trkpt lat="36.575210" lon="-118.758720">
        <ele>2046.218</ele>
        <time>2018-12-30T13:41:55Z</time>
      </trkpt>
      <trkpt lat="36.575200" lon="-118.758840">
        <ele>2045.638</ele>
        <time>2018-12-30T13:42:15Z</time>
      </trkpt>
      <trkpt lat="36.575170" lon="-118.759010">
        <ele>2045.154</ele>
        <time>2018-12-30T13:42:35Z</time>
      </trkpt>
      <trkpt lat="36.575160" lon="-118.759160">
        <ele>2044.293</ele>
        <time>2018-12-30T13:42:55Z</time>
      </trkpt>
      <trkpt lat="36.575140" lon="-118.759260">
        <ele>2043.923</ele>
        <time>2018-12-30T13:43:15Z</time>
      </trkpt>
      <trkpt lat="36.575120" lon="-118.759370">
        <ele>2043.583</ele>
        <time>2018-12-30T13:43:35Z</time>
      </trkpt>
      <trkpt lat="36.575090" lon="-118.759490">
        <ele>2043.111</ele>
        <time>2018-12-30T13:43:55Z</time>
      </trkpt>
      <trkpt lat="36.575060" lon="-118.759600">
        <ele>2042.708</ele>
        <time>2018-12-30T13:44:15Z</time>
      </trkpt>
      <trkpt lat="36.575020" lon="-118.759740">
        <ele>2042.015</ele>
        <time>2018-12-30T13:44:35Z</time>
      </trkpt>
      <trkpt lat="36.574990" lon="-118.759830">
        <ele>2041.453</ele>
        <time>2018-12-30T13:44:55Z</time>
      </trkpt>
      <trkpt lat="36.574960" lon="-118.759940">
        <ele>2039.218</ele>
        <time>2018-12-30T13:45:15Z</time>
      </trkpt>
      <trkpt lat="36.574920" lon="-118.760020">
        <ele>2037.518</ele>
        <time>2018-12-30T13:45:35Z</time>
      </trkpt>
      <trkpt lat="36.574780" lon="-118.760350">
        <ele>2034.992</ele>
        <time>2018-12-30T13:45:55Z</time>
      </trkpt>
      <trkpt lat="36.574750" lon="-118.760440">
        <ele>2034.282</ele>
        <time>2018-12-30T13:46:15Z</time>
      </trkpt>
      <trkpt lat="36.574710" lon="-118.760530">
        <ele>2034.148</ele>
        <time>2018-12-30T13:46:35Z</time>
      </trkpt>
      <trkpt lat="36.574680" lon="-118.760630">
        <ele>2033.697</ele>
        <time>2018-12-30T13:46:55Z</time>
      </trkpt>
      <trkpt lat="36.574660" lon="-118.760700">
        <ele>2033.321</ele>
        <time>2018-12-30T13:47:15Z</time>
      </trkpt>
      <trkpt lat="36.574640" lon="-118.760750">
        <ele>2033.641</ele>
        <time>2018-12-30T13:47:35Z</time>
      </trkpt>
      <trkpt lat="36.574620" lon="-118.760810">
        <ele>2033.805</ele>
        <time>2018-12-30T13:47:55Z</time>
      </trkpt>
      <trkpt lat="36.574610" lon="-118.760880">
        <ele>2033.808</ele>
        <time>2018-12-30T13:48:15Z</time>
      </trkpt>
      <trkpt lat="36.574600" lon="-118.760980">
        <ele>2033.825</ele>
        <time>2018-12-30T13:48:35Z</time>
      </trkpt>
      <trkpt lat="36.574590" lon="-118.761030">
        <ele>2034.113</ele>
        <time>2018-12-30T13:48:55Z</time>
      </trkpt>
      <trkpt lat="36.574590" lon="-118.761090">
        <ele>2034.058</ele>
        <time>2018-12-30T13:49:15Z</time>
      </trkpt>
      <trkpt lat="36.574590" lon="-118.761160">
        <ele>2034.038</ele>
        <time>2018-12-30T13:49:35Z</time>
      </trkpt>
      <trkpt lat="36.574600" lon="-118.761230">
        <ele>2033.792</ele>
        <time>2018-12-30T13:49:55Z</time>
      </trkpt>
      <trkpt lat="36.574610" lon="-118.761350">
        <ele>2033.222</ele>
        <time>2018-12-30T13:50:15Z</time>
      </trkpt>
      <trkpt lat="36.574620" lon="-118.761480">
        <ele>2032.748</ele>
        <time>2018-12-30T13:50:35Z</time>
      </trkpt>
      <trkpt lat="36.574620" lon="-118.761600">
        <ele>2032.267</ele>
        <time>2018-12-30T13:50:55Z</time>
      </trkpt>
      <trkpt lat="36.574620" lon="-118.761700">
        <ele>2031.755</ele>
        <time>2018-12-30T13:51:15Z</time>
      </trkpt>
      <trkpt lat="36.574620" lon="-118.761790">
        <ele>2031.307</ele>
        <time>2018-12-30T13:51:35Z</time>
      </trkpt>
      <trkpt lat="36.574610" lon="-118.761860">
        <ele>2030.917</ele>
        <time>2018-12-30T13:51:55Z</time>
      </trkpt>
      <trkpt lat="36.574590" lon="-118.761920">
        <ele>2031.008</ele>
        <time>2018-12-30T13:52:15Z</time>
      </trkpt>
      <trkpt lat="36.574570" lon="-118.761990">
        <ele>2030.998</ele>
        <time>2018-12-30T13:52:35Z</time>
      </trkpt>
      <trkpt lat="36.574560" lon="-118.762050">
        <ele>2030.596</ele>
        <time>2018-12-30T13:52:55Z</time>
      </trkpt>
      <trkpt lat="36.574550" lon="-118.762080">
        <ele>2030.431</ele>
        <time>2018-12-30T13:53:15Z</time>
      </trkpt>
      <trkpt lat="36.574540" lon="-118.762110">
        <ele>2030.221</ele>
        <time>2018-12-30T13:53:35Z</time>
      </trkpt>
      <trkpt lat="36.574510" lon="-118.762160">
        <ele>2030.395</ele>
        <time>2018-12-30T13:53:55Z</time>
      </trkpt>
      <trkpt lat="36.574490" lon="-118.762210">
        <ele>2030.045</ele>
        <time>2018-12-30T13:54:15Z</time>
      </trkpt>
      <trkpt lat="36.574450" lon="-118.762270">
        <ele>2030.021</ele>
        <time>2018-12-30T13:54:35Z</time>
      </trkpt>
      <trkpt lat="36.574420" lon="-118.762310">
        <ele>2030.040</ele>
        <time>2018-12-30T13:54:55Z</time>
      </trkpt>
      <trkpt lat="36.574370" lon="-118.762360">
        <ele>2030.243</ele>
        <time>2018-12-30T13:55:15Z</time>
      </trkpt>
      <trkpt lat="36.574320" lon="-118.762410">
        <ele>2030.364</ele>
        <time>2018-12-30T13:55:35Z</time>
      </trkpt>
      <trkpt lat="36.574260" lon="-118.762460">
        <ele>2030.510</ele>
        <time>2018-12-30T13:55:55Z</time>
      </trkpt>
      <trkpt lat="36.574180" lon="-118.762540">
        <ele>2030.408</ele>
        <time>2018-12-30T13:56:15Z</time>
      </trkpt>
      <trkpt lat="36.574050" lon="-118.762650">
        <ele>2030.367</ele>
        <time>2018-12-30T13:56:35Z</time>
      </trkpt>
      <trkpt lat="36.573970" lon="-118.762730">
        <ele>2029.465</ele>
        <time>2018-12-30T13:56:55Z</time>
      </trkpt>
      <trkpt lat="36.573900" lon="-118.762810">
        <ele>2027.790</ele>
        <time>2018-12-30T13:57:15Z</time>
      </trkpt>
      <trkpt lat="36.573840" lon="-118.762870">
        <ele>2026.090</ele>
        <time>2018-12-30T13:57:35Z</time>
      </trkpt>
      <trkpt lat="36.573790" lon="-118.762930">
        <ele>2023.834</ele>
        <time>2018-12-30T13:57:55Z</time>
      </trkpt>
      <trkpt lat="36.573710" lon="-118.763040">
        <ele>2020.844</ele>
        <time>2018-12-30T13:58:15Z</time>
      </trkpt>
      <trkpt lat="36.573650" lon="-118.763120">
        <ele>2019.420</ele>
        <time>2018-12-30T13:58:35Z</time>
      </trkpt>
      <trkpt lat="36.573560" lon="-118.763240">
        <ele>2018.039</ele>
        <time>2018-12-30T13:58:55Z</time>
      </trkpt>
      <trkpt lat="36.573420" lon="-118.763450">
        <ele>2019.251</ele>
        <time>2018-12-30T13:59:15Z</time>
      </trkpt>
      <trkpt lat="36.573290" lon="-118.763690">
        <ele>2018.201</ele>
        <time>2018-12-30T13:59:35Z</time>
      </trkpt>
      <trkpt lat="36.573220" lon="-118.763810">
        <ele>2017.111</ele>
        <time>2018-12-30T13:59:55Z</time>
      </trkpt>
      <trkpt lat="36.573180" lon="-118.763920">
        <ele>2015.408</ele>
        <time>2018-12-30T14:00:15Z</time>
      </trkpt>
      <trkpt lat="36.573140" lon="-118.764030">
        <ele>2014.338</ele>
        <time>2018-12-30T14:00:35Z</time>
      </trkpt>
      <trkpt lat="36.573090" lon="-118.764210">
        <ele>2014.996</ele>
        <time>2018-12-30T14:00:55Z</time>
      </trkpt>
      <trkpt lat="36.573080" lon="-118.764330">
        <ele>2014.631</ele>
        <time>2018-12-30T14:01:15Z</time>
      </trkpt>
      <trkpt lat="36.573090" lon="-118.764470">
        <ele>2014.651</ele>
        <time>2018-12-30T14:01:35Z</time>
      </trkpt>
      <trkpt lat="36.573090" lon="-118.764600">
        <ele>2015.055</ele>
        <time>2018-12-30T14:01:55Z</time>
      </trkpt>
      <trkpt lat="36.573100" lon="-118.764680">
        <ele>2014.995</ele>
        <time>2018-12-30T14:02:15Z</time>
      </trkpt>
      <trkpt lat="36.573120" lon="-118.764800">
        <ele>2014.631</ele>
        <time>2018-12-30T14:02:35Z</time>
      </trkpt>
      <trkpt lat="36.573160" lon="-118.764910">
        <ele>2013.390</ele>
        <time>2018-12-30T14:02:55Z</time>
      </trkpt>
      <trkpt lat="36.573190" lon="-118.764990">
        <ele>2012.268</ele>
        <time>2018-12-30T14:03:15Z</time>
      </trkpt>
      <trkpt lat="36.573270" lon="-118.765120">
        <ele>2011.342</ele>
        <time>2018-12-30T14:03:35Z</time>
      </trkpt>
      <trkpt lat="36.573310" lon="-118.765200">
        <ele>2010.926</ele>
        <time>2018-12-30T14:03:55Z</time>
      </trkpt>
      <trkpt lat="36.573330" lon="-118.765270">
        <ele>2010.708</ele>
        <time>2018-12-30T14:04:15Z</time>
      </trkpt>
      <trkpt lat="36.573350" lon="-118.765360">
        <ele>2010.649</ele>
        <time>2018-12-30T14:04:35Z</time>
      </trkpt>
      <trkpt lat="36.573360" lon="-118.765460">
        <ele>2010.467</ele>
        <time>2018-12-30T14:04:55Z</time>
      </trkpt>
      <trkpt lat="36.573360" lon="-118.765540">
        <ele>2010.142</ele>
        <time>2018-12-30T14:05:15Z</time>
      </trkpt>
      <trkpt lat="36.573360" lon="-118.765600">
        <ele>2009.982</ele>
        <time>2018-12-30T14:05:35Z</time>
      </trkpt>
      <trkpt lat="36.573360" lon="-118.765650">
        <ele>2009.786</ele>
        <time>2018-12-30T14:05:55Z</time>
      </trkpt>
      <trkpt lat="36.573360" lon="-118.765720">
        <ele>2009.416</ele>
        <time>2018-12-30T14:06:15Z</time>
      </trkpt>
      <trkpt lat="36.573340" lon="-118.765810">
        <ele>2009.152</ele>
        <time>2018-12-30T14:06:35Z</time>
      </trkpt>
      <trkpt lat="36.573340" lon="-118.765820">
        <ele>2009.081</ele>
        <time>2018-12-30T14:06:55Z</time>
      </trkpt>
      <trkpt lat="36.573310" lon="-118.765920">
        <ele>2008.715</ele>
        <time>2018-12-30T14:07:15Z</time>
      </trkpt>
      <trkpt lat="36.573280" lon="-118.765990">
        <ele>2008.565</ele>
        <time>2018-12-30T14:07:35Z</time>
      </trkpt>
      <trkpt lat="36.573260" lon="-118.766050">
        <ele>2008.011</ele>
        <time>2018-12-30T14:07:55Z</time>
      </trkpt>
      <trkpt lat="36.573240" lon="-118.766090">
        <ele>2007.708</ele>
        <time>2018-12-30T14:08:15Z</time>
      </trkpt>
      <trkpt lat="36.573220" lon="-118.766140">
        <ele>2007.244</ele>
        <time>2018-12-30T14:08:35Z</time>
      </trkpt>
      <trkpt lat="36.573200" lon="-118.766180">
        <ele>2006.872</ele>
        <time>2018-12-30T14:08:55Z</time>
      </trkpt>
      <trkpt lat="36.573170" lon="-118.766220">
        <ele>2006.527</ele>
        <time>2018-12-30T14:09:15Z</time>
      </trkpt>
      <trkpt lat="36.573130" lon="-118.766270">
        <ele>2006.197</ele>
        <time>2018-12-30T14:09:35Z</time>
      </trkpt>
      <trkpt lat="36.573090" lon="-118.766310">
        <ele>2005.981</ele>
        <time>2018-12-30T14:09:55Z</time>
      </trkpt>
      <trkpt lat="36.573060" lon="-118.766340">
        <ele>2005.611</ele>
        <time>2018-12-30T14:10:15Z</time>
      </trkpt>
      <trkpt lat="36.573030" lon="-118.766370">
        <ele>2005.497</ele>
        <time>2018-12-30T14:10:35Z</time>
      </trkpt>
      <trkpt lat="36.573000" lon="-118.766390">
        <ele>2005.286</ele>
        <time>2018-12-30T14:10:55Z</time>
      </trkpt>
      <trkpt lat="36.572980" lon="-118.766410">
        <ele>2005.045</ele>
        <time>2018-12-30T14:11:15Z</time>
      </trkpt>
      <trkpt lat="36.572940" lon="-118.766430">
        <ele>2004.847</ele>
        <time>2018-12-30T14:11:35Z</time>
      </trkpt>
      <trkpt lat="36.572620" lon="-118.766620">
        <ele>2000.811</ele>
        <time>2018-12-30T14:11:55Z</time>
      </trkpt>
      <trkpt lat="36.572530" lon="-118.766690">
        <ele>1999.808</ele>
        <time>2018-12-30T14:12:15Z</time>
      </trkpt>
      <trkpt lat="36.572450" lon="-118.766740">
        <ele>1999.187</ele>
        <time>2018-12-30T14:12:35Z</time>
      </trkpt>
      <trkpt lat="36.572370" lon="-118.766800">
        <ele>1998.235</ele>
        <time>2018-12-30T14:12:55Z</time>
      </trkpt>
      <trkpt lat="36.572280" lon="-118.766880">
        <ele>1997.730</ele>
        <time>2018-12-30T14:13:15Z</time>
      </trkpt>
      <trkpt lat="36.572200" lon="-118.766960">
        <ele>1997.280</ele>
        <time>2018-12-30T14:13:35Z</time>
      </trkpt>
      <trkpt lat="36.572110" lon="-118.767060">
        <ele>1996.694</ele>
        <time>2018-12-30T14:13:55Z</time>
      </trkpt>
      <trkpt lat="36.572050" lon="-118.767110">
        <ele>1996.494</ele>
        <time>2018-12-30T14:14:15Z</time>
      </trkpt>
      <trkpt lat="36.571970" lon="-118.767170">
        <ele>1996.050</ele>
        <time>2018-12-30T14:14:35Z</time>
      </trkpt>
      <trkpt lat="36.571930" lon="-118.767200">
        <ele>1995.779</ele>
        <time>2018-12-30T14:14:55Z</time>
      </trkpt>
      <trkpt lat="36.571870" lon="-118.767240">
        <ele>1995.475</ele>
        <time>2018-12-30T14:15:15Z</time>
      </trkpt>
      <trkpt lat="36.571840" lon="-118.767250">
        <ele>1995.328</ele>
        <time>2018-12-30T14:15:35Z</time>
      </trkpt>
      <trkpt lat="36.571810" lon="-118.767270">
        <ele>1995.120</ele>
        <time>2018-12-30T14:15:55Z</time>
      </trkpt>
      <trkpt lat="36.571770" lon="-118.767280">
        <ele>1994.808</ele>
        <time>2018-12-30T14:16:15Z</time>
      </trkpt>
      <trkpt lat="36.571720" lon="-118.767300">
        <ele>1994.440</ele>
        <time>2018-12-30T14:16:35Z</time>
      </trkpt>
      <trkpt lat="36.571680" lon="-118.767310">
        <ele>1994.178</ele>
        <time>2018-12-30T14:16:55Z</time>
      </trkpt>
      <trkpt lat="36.571630" lon="-118.767320">
        <ele>1993.893</ele>
        <time>2018-12-30T14:17:15Z</time>
      </trkpt>
      <trkpt lat="36.571580" lon="-118.767330">
        <ele>1993.483</ele>
        <time>2018-12-30T14:17:35Z</time>
      </trkpt>
      <trkpt lat="36.571530" lon="-118.767330">
        <ele>1993.257</ele>
        <time>2018-12-30T14:17:55Z</time>
      </trkpt>
      <trkpt lat="36.571490" lon="-118.767330">
        <ele>1992.997</ele>
        <time>2018-12-30T14:18:15Z</time>
      </trkpt>
      <trkpt lat="36.571460" lon="-118.767330">
        <ele>1992.783</ele>
        <time>2018-12-30T14:18:35Z</time>
      </trkpt>
      <trkpt lat="36.571410" lon="-118.767320">
        <ele>1992.532</ele>
        <time>2018-12-30T14:18:55Z</time>
      </trkpt>
      <trkpt lat="36.571330" lon="-118.767300">
        <ele>1992.149</ele>
        <time>2018-12-30T14:19:15Z</time>
      </trkpt>
      <trkpt lat="36.571300" lon="-118.767290">
        <ele>1991.902</ele>
        <time>2018-12-30T14:19:35Z</time>
      </trkpt>
      <trkpt lat="36.571270" lon="-118.767280">
        <ele>1991.822</ele>
        <time>2018-12-30T14:19:55Z</time>
      </trkpt>
      <trkpt lat="36.571230" lon="-118.767260">
        <ele>1991.608</ele>
        <time>2018-12-30T14:20:15Z</time>
      </trkpt>
      <trkpt lat="36.571200" lon="-118.767240">
        <ele>1991.487</ele>
        <time>2018-12-30T14:20:35Z</time>
      </trkpt>
      <trkpt lat="36.571120" lon="-118.767190">
        <ele>1990.895</ele>
        <time>2018-12-30T14:20:55Z</time>
      </trkpt>
      <trkpt lat="36.571060" lon="-118.767140">
        <ele>1990.550</ele>
        <time>2018-12-30T14:21:15Z</time>
      </trkpt>
      <trkpt lat="36.571010" lon="-118.767110">
        <ele>1990.220</ele>
        <time>2018-12-30T14:21:35Z</time>
      </trkpt>
      <trkpt lat="36.570970" lon="-118.767070">
        <ele>1990.114</ele>
        <time>2018-12-30T14:21:55Z</time>
      </trkpt>
      <trkpt lat="36.570920" lon="-118.767020">
        <ele>1989.474</ele>
        <time>2018-12-30T14:22:15Z</time>
      </trkpt>
      <trkpt lat="36.570880" lon="-118.766970">
        <ele>1989.070</ele>
        <time>2018-12-30T14:22:35Z</time>
      </trkpt>
      <trkpt lat="36.570850" lon="-118.766910">
        <ele>1988.989</ele>
        <time>2018-12-30T14:22:55Z</time>
      </trkpt>
      <trkpt lat="36.570710" lon="-118.766670">
        <ele>1988.582</ele>
        <time>2018-12-30T14:23:15Z</time>
      </trkpt>
      <trkpt lat="36.570680" lon="-118.766620">
        <ele>1988.343</ele>
        <time>2018-12-30T14:23:35Z</time>
      </trkpt>
      <trkpt lat="36.570640" lon="-118.766570">
        <ele>1987.517</ele>
        <time>2018-12-30T14:23:55Z</time>
      </trkpt>
      <trkpt lat="36.570620" lon="-118.766540">
        <ele>1987.208</ele>
        <time>2018-12-30T14:24:15Z</time>
      </trkpt>
      <trkpt lat="36.570580" lon="-118.766500">
        <ele>1986.181</ele>
        <time>2018-12-30T14:24:35Z</time>
      </trkpt>
      <trkpt lat="36.570540" lon="-118.766460">
        <ele>1985.119</ele>
        <time>2018-12-30T14:24:55Z</time>
      </trkpt>
      <trkpt lat="36.570520" lon="-118.766440">
        <ele>1984.674</ele>
        <time>2018-12-30T14:25:15Z</time>
      </trkpt>
      <trkpt lat="36.570500" lon="-118.766420">
        <ele>1984.294</ele>
        <time>2018-12-30T14:25:35Z</time>
      </trkpt>
      <trkpt lat="36.570470" lon="-118.766390">
        <ele>1983.678</ele>
        <time>2018-12-30T14:25:55Z</time>
      </trkpt>
      <trkpt lat="36.570340" lon="-118.766290">
        <ele>1981.688</ele>
        <time>2018-12-30T14:26:15Z</time>
      </trkpt>
      <trkpt lat="36.570290" lon="-118.766250">
        <ele>1980.934</ele>
        <time>2018-12-30T14:26:35Z</time>
      </trkpt>
      <trkpt lat="36.570220" lon="-118.766190">
        <ele>1980.313</ele>
        <time>2018-12-30T14:26:55Z</time>
      </trkpt>
      <trkpt lat="36.570180" lon="-118.766150">
        <ele>1980.024</ele>
        <time>2018-12-30T14:27:15Z</time>
      </trkpt>
      <trkpt lat="36.570160" lon="-118.766110">
        <ele>1980.204</ele>
        <time>2018-12-30T14:27:35Z</time>
      </trkpt>
      <trkpt lat="36.570110" lon="-118.766050">
        <ele>1980.214</ele>
        <time>2018-12-30T14:27:55Z</time>
      </trkpt>
      <trkpt lat="36.570060" lon="-118.765970">
        <ele>1980.408</ele>
        <time>2018-12-30T14:28:15Z</time>
      </trkpt>
      <trkpt lat="36.570000" lon="-118.765890">
        <ele>1980.115</ele>
        <time>2018-12-30T14:28:35Z</time>
      </trkpt>
      <trkpt lat="36.569960" lon="-118.765830">
        <ele>1979.933</ele>
        <time>2018-12-30T14:28:55Z</time>
      </trkpt>
      <trkpt lat="36.569930" lon="-118.765780">
        <ele>1979.848</ele>
        <time>2018-12-30T14:29:15Z</time>
      </trkpt>
      <trkpt lat="36.569880" lon="-118.765720">
        <ele>1979.398</ele>
        <time>2018-12-30T14:29:35Z</time>
      </trkpt>
      <trkpt lat="36.569800" lon="-118.765650">
        <ele>1979.762</ele>
        <time>2018-12-30T14:29:55Z</time>
      </trkpt>
      <trkpt lat="36.569740" lon="-118.765600">
        <ele>1980.512</ele>
        <time>2018-12-30T14:30:15Z</time>
      </trkpt>
      <trkpt lat="36.569710" lon="-118.765590">
        <ele>1980.528</ele>
        <time>2018-12-30T14:30:35Z</time>
      </trkpt>
      <trkpt lat="36.569660" lon="-118.765560">
        <ele>1981.027</ele>
        <time>2018-12-30T14:30:55Z</time>
      </trkpt>
      <trkpt lat="36.569600" lon="-118.765540">
        <ele>1981.266</ele>
        <time>2018-12-30T14:31:15Z</time>
      </trkpt>
      <trkpt lat="36.569530" lon="-118.765520">
        <ele>1981.329</ele>
        <time>2018-12-30T14:31:35Z</time>
      </trkpt>
      <trkpt lat="36.569470" lon="-118.765510">
        <ele>1981.321</ele>
        <time>2018-12-30T14:31:55Z</time>
      </trkpt>
      <trkpt lat="36.569390" lon="-118.765500">
        <ele>1981.208</ele>
        <time>2018-12-30T14:32:15Z</time>
      </trkpt>
      <trkpt lat="36.569290" lon="-118.765500">
        <ele>1980.889</ele>
        <time>2018-12-30T14:32:35Z</time>
      </trkpt>
      <trkpt lat="36.569230" lon="-118.765490">
        <ele>1980.757</ele>
        <time>2018-12-30T14:32:55Z</time>
      </trkpt>
      <trkpt lat="36.569130" lon="-118.765480">
        <ele>1980.522</ele>
        <time>2018-12-30T14:33:15Z</time>
      </trkpt>
      <trkpt lat="36.569060" lon="-118.765470">
        <ele>1980.352</ele>
        <time>2018-12-30T14:33:35Z</time>
      </trkpt>
      <trkpt lat="36.568920" lon="-118.765440">
        <ele>1980.336</ele>
        <time>2018-12-30T14:33:55Z</time>
      </trkpt>
      <trkpt lat="36.568850" lon="-118.765420">
        <ele>1980.436</ele>
        <time>2018-12-30T14:34:15Z</time>
      </trkpt>
      <trkpt lat="36.568770" lon="-118.765390">
        <ele>1980.562</ele>
        <time>2018-12-30T14:34:35Z</time>
      </trkpt>
      <trkpt lat="36.568670" lon="-118.765380">
        <ele>1980.431</ele>
        <time>2018-12-30T14:34:55Z</time>
      </trkpt>
      <trkpt lat="36.568580" lon="-118.765370">
        <ele>1980.494</ele>
        <time>2018-12-30T14:35:15Z</time>
      </trkpt>
      <trkpt lat="36.568500" lon="-118.765370">
        <ele>1980.357</ele>
        <time>2018-12-30T14:35:35Z</time>
      </trkpt>
      <trkpt lat="36.568470" lon="-118.765370">
        <ele>1980.222</ele>
        <time>2018-12-30T14:35:55Z</time>
      </trkpt>
      <trkpt lat="36.568440" lon="-118.765370">
        <ele>1980.208</ele>
        <time>2018-12-30T14:36:15Z</time>
      </trkpt>
      <trkpt lat="36.568370" lon="-118.765380">
        <ele>1979.962</ele>
        <time>2018-12-30T14:36:35Z</time>
      </trkpt>
      <trkpt lat="36.568330" lon="-118.765390">
        <ele>1979.690</ele>
        <time>2018-12-30T14:36:55Z</time>
      </trkpt>
      <trkpt lat="36.568290" lon="-118.765400">
        <ele>1979.415</ele>
        <time>2018-12-30T14:37:15Z</time>
      </trkpt>
      <trkpt lat="36.568210" lon="-118.765420">
        <ele>1978.865</ele>
        <time>2018-12-30T14:37:35Z</time>
      </trkpt>
      <trkpt lat="36.568090" lon="-118.765490">
        <ele>1976.749</ele>
        <time>2018-12-30T14:37:55Z</time>
      </trkpt>
      <trkpt lat="36.568010" lon="-118.765540">
        <ele>1975.589</ele>
        <time>2018-12-30T14:38:15Z</time>
      </trkpt>
      <trkpt lat="36.567870" lon="-118.765630">
        <ele>1974.275</ele>
        <time>2018-12-30T14:38:35Z</time>
      </trkpt>
      <trkpt lat="36.567720" lon="-118.765710">
        <ele>1973.544</ele>
        <time>2018-12-30T14:38:55Z</time>
      </trkpt>
      <trkpt lat="36.567590" lon="-118.765770">
        <ele>1972.816</ele>
        <time>2018-12-30T14:39:15Z</time>
      </trkpt>
      <trkpt lat="36.567520" lon="-118.765790">
        <ele>1972.676</ele>
        <time>2018-12-30T14:39:35Z</time>
      </trkpt>
      <trkpt lat="36.567450" lon="-118.765800">
        <ele>1972.513</ele>
        <time>2018-12-30T14:39:55Z</time>
      </trkpt>
      <trkpt lat="36.567400" lon="-118.765790">
        <ele>1972.608</ele>
        <time>2018-12-30T14:40:15Z</time>
      </trkpt>
      <trkpt lat="36.567330" lon="-118.765790">
        <ele>1972.664</ele>
        <time>2018-12-30T14:40:35Z</time>
      </trkpt>
      <trkpt lat="36.567240" lon="-118.765770">
        <ele>1972.772</ele>
        <time>2018-12-30T14:40:55Z</time>
      </trkpt>
      <trkpt lat="36.567050" lon="-118.765740">
        <ele>1972.937</ele>
        <time>2018-12-30T14:41:15Z</time>
      </trkpt>
      <trkpt lat="36.566860" lon="-118.765700">
        <ele>1973.247</ele>
        <time>2018-12-30T14:41:35Z</time>
      </trkpt>
      <trkpt lat="36.566720" lon="-118.765670">
        <ele>1973.321</ele>
        <time>2018-12-30T14:41:55Z</time>
      </trkpt>
      <trkpt lat="36.566630" lon="-118.765670">
        <ele>1973.311</ele>
        <time>2018-12-30T14:42:15Z</time>
      </trkpt>
      <trkpt lat="36.566530" lon="-118.765660">
        <ele>1973.417</ele>
        <time>2018-12-30T14:42:35Z</time>
      </trkpt>
      <trkpt lat="36.566450" lon="-118.765660">
        <ele>1973.266</ele>
        <time>2018-12-30T14:42:55Z</time>
      </trkpt>
      <trkpt lat="36.566330" lon="-118.765680">
        <ele>1972.793</ele>
        <time>2018-12-30T14:43:15Z</time>
      </trkpt>
      <trkpt lat="36.566220" lon="-118.765700">
        <ele>1972.165</ele>
        <time>2018-12-30T14:43:35Z</time>
      </trkpt>
      <trkpt lat="36.566120" lon="-118.765720">
        <ele>1971.321</ele>
        <time>2018-12-30T14:43:55Z</time>
      </trkpt>
      <trkpt lat="36.566040" lon="-118.765740">
        <ele>1970.608</ele>
        <time>2018-12-30T14:44:15Z</time>
      </trkpt>
      <trkpt lat="36.565970" lon="-118.765760">
        <ele>1970.092</ele>
        <time>2018-12-30T14:44:35Z</time>
      </trkpt>
      <trkpt lat="36.565900" lon="-118.765800">
        <ele>1969.270</ele>
        <time>2018-12-30T14:44:55Z</time>
      </trkpt>
      <trkpt lat="36.565840" lon="-118.765830">
        <ele>1968.745</ele>
        <time>2018-12-30T14:45:15Z</time>
      </trkpt>
      <trkpt lat="36.565620" lon="-118.765950">
        <ele>1967.235</ele>
        <time>2018-12-30T14:45:35Z</time>
      </trkpt>
      <trkpt lat="36.565590" lon="-118.765970">
        <ele>1967.069</ele>
        <time>2018-12-30T14:45:55Z</time>
      </trkpt>
      <trkpt lat="36.565550" lon="-118.766000">
        <ele>1966.679</ele>
        <time>2018-12-30T14:46:15Z</time>
      </trkpt>
      <trkpt lat="36.565510" lon="-118.766040">
        <ele>1966.235</ele>
        <time>2018-12-30T14:46:35Z</time>
      </trkpt>
      <trkpt lat="36.565470" lon="-118.766060">
        <ele>1966.044</ele>
        <time>2018-12-30T14:46:55Z</time>
      </trkpt>
      <trkpt lat="36.565440" lon="-118.766100">
        <ele>1965.812</ele>
        <time>2018-12-30T14:47:15Z</time>
      </trkpt>
      <trkpt lat="36.565400" lon="-118.766140">
        <ele>1965.532</ele>
        <time>2018-12-30T14:47:35Z</time>
      </trkpt>
      <trkpt lat="36.565370" lon="-118.766180">
        <ele>1965.105</ele>
        <time>2018-12-30T14:47:55Z</time>
      </trkpt>
      <trkpt lat="36.565350" lon="-118.766210">
        <ele>1964.808</ele>
        <time>2018-12-30T14:48:15Z</time>
      </trkpt>
      <trkpt lat="36.565310" lon="-118.766270">
        <ele>1964.154</ele>
        <time>2018-12-30T14:48:35Z</time>
      </trkpt>
      <trkpt lat="36.565280" lon="-118.766330">
        <ele>1963.162</ele>
        <time>2018-12-30T14:48:55Z</time>
      </trkpt>
      <trkpt lat="36.565240" lon="-118.766410">
        <ele>1961.577</ele>
        <time>2018-12-30T14:49:15Z</time>
      </trkpt>
      <trkpt lat="36.565210" lon="-118.766470">
        <ele>1960.287</ele>
        <time>2018-12-30T14:49:35Z</time>
      </trkpt>
      <trkpt lat="36.565160" lon="-118.766590">
        <ele>1957.631</ele>
        <time>2018-12-30T14:49:55Z</time>
      </trkpt>
      <trkpt lat="36.565130" lon="-118.766680">
        <ele>1956.041</ele>
        <time>2018-12-30T14:50:15Z</time>
      </trkpt>
      <trkpt lat="36.565100" lon="-118.766750">
        <ele>1955.237</ele>
        <time>2018-12-30T14:50:35Z</time>
      </trkpt>
      <trkpt lat="36.565070" lon="-118.766850">
        <ele>1954.486</ele>
        <time>2018-12-30T14:50:55Z</time>
      </trkpt>
      <trkpt lat="36.565040" lon="-118.766940">
        <ele>1954.137</ele>
        <time>2018-12-30T14:51:15Z</time>
      </trkpt>
      <trkpt lat="36.565030" lon="-118.767000">
        <ele>1954.049</ele>
        <time>2018-12-30T14:51:35Z</time>
      </trkpt>
      <trkpt lat="36.565020" lon="-118.767050">
        <ele>1953.813</ele>
        <time>2018-12-30T14:51:55Z</time>
      </trkpt>
      <trkpt lat="36.565010" lon="-118.767100">
        <ele>1953.708</ele>
        <time>2018-12-30T14:52:15Z</time>
      </trkpt>
      <trkpt lat="36.565000" lon="-118.767140">
        <ele>1953.646</ele>
        <time>2018-12-30T14:52:35Z</time>
      </trkpt>
      <trkpt lat="36.564990" lon="-118.767210">
        <ele>1953.574</ele>
        <time>2018-12-30T14:52:55Z</time>
      </trkpt>
      <trkpt lat="36.564990" lon="-118.767260">
        <ele>1953.349</ele>
        <time>2018-12-30T14:53:15Z</time>
      </trkpt>
      <trkpt lat="36.564980" lon="-118.767370">
        <ele>1952.989</ele>
        <time>2018-12-30T14:53:35Z</time>
      </trkpt>
      <trkpt lat="36.564980" lon="-118.767500">
        <ele>1952.353</ele>
        <time>2018-12-30T14:53:55Z</time>
      </trkpt>
      <trkpt lat="36.564970" lon="-118.767820">
        <ele>1951.033</ele>
        <time>2018-12-30T14:54:15Z</time>
      </trkpt>
      <trkpt lat="36.564970" lon="-118.767970">
        <ele>1950.569</ele>
        <time>2018-12-30T14:54:35Z</time>
      </trkpt>
      <trkpt lat="36.564970" lon="-118.768060">
        <ele>1950.318</ele>
        <time>2018-12-30T14:54:55Z</time>
      </trkpt>
      <trkpt lat="36.564970" lon="-118.768130">
        <ele>1950.136</ele>
        <time>2018-12-30T14:55:15Z</time>
      </trkpt>
      <trkpt lat="36.564980" lon="-118.768190">
        <ele>1950.017</ele>
        <time>2018-12-30T14:55:35Z</time>
      </trkpt>
      <trkpt lat="36.564980" lon="-118.768250">
        <ele>1949.618</ele>
        <time>2018-12-30T14:55:55Z</time>
      </trkpt>
      <trkpt lat="36.564990" lon="-118.768310">
        <ele>1949.208</ele>
        <time>2018-12-30T14:56:15Z</time>
      </trkpt>
      <trkpt lat="36.565010" lon="-118.768430">
        <ele>1948.496</ele>
        <time>2018-12-30T14:56:35Z</time>
      </trkpt>
      <trkpt lat="36.565090" lon="-118.768770">
        <ele>1947.234</ele>
        <time>2018-12-30T14:56:55Z</time>
      </trkpt>
      <trkpt lat="36.565140" lon="-118.768960">
        <ele>1946.819</ele>
        <time>2018-12-30T14:57:15Z</time>
      </trkpt>
      <trkpt lat="36.565150" lon="-118.768990">
        <ele>1946.729</ele>
        <time>2018-12-30T14:57:35Z</time>
      </trkpt>
      <trkpt lat="36.565350" lon="-118.769610">
        <ele>1947.163</ele>
        <time>2018-12-30T14:57:55Z</time>
      </trkpt>
      <trkpt lat="36.565420" lon="-118.769810">
        <ele>1946.893</ele>
        <time>2018-12-30T14:58:15Z</time>
      </trkpt>
      <trkpt lat="36.565480" lon="-118.770000">
        <ele>1946.089</ele>
        <time>2018-12-30T14:58:35Z</time>
      </trkpt>
      <trkpt lat="36.565500" lon="-118.770070">
        <ele>1945.688</ele>
        <time>2018-12-30T14:58:55Z</time>
      </trkpt>
      <trkpt lat="36.565510" lon="-118.770130">
        <ele>1945.292</ele>
        <time>2018-12-30T14:59:15Z</time>
      </trkpt>
      <trkpt lat="36.565520" lon="-118.770170">
        <ele>1945.173</ele>
        <time>2018-12-30T14:59:35Z</time>
      </trkpt>
      <trkpt lat="36.565520" lon="-118.770210">
        <ele>1945.120</ele>
        <time>2018-12-30T14:59:55Z</time>
      </trkpt>
      <trkpt lat="36.565530" lon="-118.770320">
        <ele>1945.008</ele>
        <time>2018-12-30T15:00:15Z</time>
      </trkpt>
      <trkpt lat="36.565530" lon="-118.770410">
        <ele>1945.022</ele>
        <time>2018-12-30T15:00:35Z</time>
      </trkpt>
      <trkpt lat="36.565520" lon="-118.770510">
        <ele>1945.340</ele>
        <time>2018-12-30T15:00:55Z</time>
      </trkpt>
      <trkpt lat="36.565520" lon="-118.770640">
        <ele>1945.555</ele>
        <time>2018-12-30T15:01:15Z</time>
      </trkpt>
      <trkpt lat="36.565510" lon="-118.770850">
        <ele>1946.655</ele>
        <time>2018-12-30T15:01:35Z</time>
      </trkpt>
      <trkpt lat="36.565500" lon="-118.770990">
        <ele>1947.639</ele>
        <time>2018-12-30T15:01:55Z</time>
      </trkpt>
      <trkpt lat="36.565510" lon="-118.771160">
        <ele>1948.589</ele>
        <time>2018-12-30T15:02:15Z</time>
      </trkpt>
      <trkpt lat="36.565520" lon="-118.771260">
        <ele>1948.955</ele>
        <time>2018-12-30T15:02:35Z</time>
      </trkpt>
      <trkpt lat="36.565530" lon="-118.771350">
        <ele>1949.334</ele>
        <time>2018-12-30T15:02:55Z</time>
      </trkpt>
      <trkpt lat="36.565550" lon="-118.771530">
        <ele>1950.182</ele>
        <time>2018-12-30T15:03:15Z</time>
      </trkpt>
      <trkpt lat="36.565600" lon="-118.771890">
        <ele>1952.043</ele>
        <time>2018-12-30T15:03:35Z</time>
      </trkpt>
      <trkpt lat="36.565640" lon="-118.772200">
        <ele>1955.017</ele>
        <time>2018-12-30T15:03:55Z</time>
      </trkpt>
      <trkpt lat="36.565640" lon="-118.772230">
        <ele>1955.308</ele>
        <time>2018-12-30T15:04:15Z</time>
      </trkpt>
      <trkpt lat="36.565650" lon="-118.772270">
        <ele>1955.691</ele>
        <time>2018-12-30T15:04:35Z</time>
      </trkpt>
      <trkpt lat="36.565650" lon="-118.772320">
        <ele>1956.139</ele>
        <time>2018-12-30T15:04:55Z</time>
      </trkpt>
      <trkpt lat="36.565650" lon="-118.772350">
        <ele>1956.444</ele>
        <time>2018-12-30T15:05:15Z</time>
      </trkpt>
      <trkpt lat="36.565640" lon="-118.772390">
        <ele>1956.854</ele>
        <time>2018-12-30T15:05:35Z</time>
      </trkpt>
      <trkpt lat="36.565640" lon="-118.772420">
        <ele>1957.148</ele>
        <time>2018-12-30T15:05:55Z</time>
      </trkpt>
      <trkpt lat="36.565630" lon="-118.772460">
        <ele>1957.528</ele>
        <time>2018-12-30T15:06:15Z</time>
      </trkpt>
      <trkpt lat="36.565620" lon="-118.772510">
        <ele>1958.014</ele>
        <time>2018-12-30T15:06:35Z</time>
      </trkpt>
      <trkpt lat="36.565610" lon="-118.772540">
        <ele>1958.373</ele>
        <time>2018-12-30T15:06:55Z</time>
      </trkpt>
      <trkpt lat="36.565600" lon="-118.772570">
        <ele>1958.544</ele>
        <time>2018-12-30T15:07:15Z</time>
      </trkpt>
      <trkpt lat="36.565590" lon="-118.772600">
        <ele>1958.805</ele>
        <time>2018-12-30T15:07:35Z</time>
      </trkpt>
      <trkpt lat="36.565580" lon="-118.772620">
        <ele>1959.015</ele>
        <time>2018-12-30T15:07:55Z</time>
      </trkpt>
      <trkpt lat="36.565560" lon="-118.772660">
        <ele>1959.508</ele>
        <time>2018-12-30T15:08:15Z</time>
      </trkpt>
      <trkpt lat="36.565530" lon="-118.772700">
        <ele>1959.967</ele>
        <time>2018-12-30T15:08:35Z</time>
      </trkpt>
      <trkpt lat="36.565520" lon="-118.772730">
        <ele>1960.235</ele>
        <time>2018-12-30T15:08:55Z</time>
      </trkpt>
      <trkpt lat="36.565500" lon="-118.772750">
        <ele>1960.470</ele>
        <time>2018-12-30T15:09:15Z</time>
      </trkpt>
      <trkpt lat="36.565470" lon="-118.772780">
        <ele>1960.770</ele>
        <time>2018-12-30T15:09:35Z</time>
      </trkpt>
      <trkpt lat="36.565440" lon="-118.772810">
        <ele>1960.964</ele>
        <time>2018-12-30T15:09:55Z</time>
      </trkpt>
      <trkpt lat="36.565400" lon="-118.772840">
        <ele>1961.254</ele>
        <time>2018-12-30T15:10:15Z</time>
      </trkpt>
      <trkpt lat="36.565320" lon="-118.772900">
        <ele>1961.640</ele>
        <time>2018-12-30T15:10:35Z</time>
      </trkpt>
      <trkpt lat="36.564750" lon="-118.773290">
        <ele>1963.589</ele>
        <time>2018-12-30T15:10:55Z</time>
      </trkpt>
      <trkpt lat="36.564720" lon="-118.773320">
        <ele>1963.532</ele>
        <time>2018-12-30T15:11:15Z</time>
      </trkpt>
      <trkpt lat="36.564680" lon="-118.773350">
        <ele>1963.492</ele>
        <time>2018-12-30T15:11:35Z</time>
      </trkpt>
      <trkpt lat="36.564640" lon="-118.773390">
        <ele>1963.211</ele>
        <time>2018-12-30T15:11:55Z</time>
      </trkpt>
      <trkpt lat="36.564580" lon="-118.773440">
        <ele>1962.808</ele>
        <time>2018-12-30T15:12:15Z</time>
      </trkpt>
      <trkpt lat="36.564577" lon="-118.773443">
        <ele>1962.846</ele>
        <time>2018-12-30T15:12:35Z</time>
      </trkpt>
      <trkpt lat="36.564470" lon="-118.773350">
        <ele>1964.224</ele>
        <time>2018-12-30T15:12:55Z</time>
      </trkpt>
      <trkpt lat="36.564380" lon="-118.773300">
        <ele>1965.499</ele>
        <time>2018-12-30T15:13:15Z</time>
      </trkpt>
      <trkpt lat="36.564380" lon="-118.773304">
        <ele>1965.369</ele>
        <time>2018-12-30T15:13:35Z</time>
      </trkpt>
      <trkpt lat="36.564230" lon="-118.773500">
        <ele>1965.263</ele>
        <time>2018-12-30T15:13:55Z</time>
      </trkpt>
      <trkpt lat="36.563960" lon="-118.773840">
        <ele>1964.413</ele>
        <time>2018-12-30T15:14:15Z</time>
      </trkpt>
      <trkpt lat="36.563910" lon="-118.773870">
        <ele>1964.319</ele>
        <time>2018-12-30T15:14:35Z</time>
      </trkpt>
      <trkpt lat="36.563870" lon="-118.773890">
        <ele>1964.258</ele>
        <time>2018-12-30T15:14:55Z</time>
      </trkpt>
      <trkpt lat="36.563800" lon="-118.773900">
        <ele>1964.374</ele>
        <time>2018-12-30T15:15:15Z</time>
      </trkpt>
      <trkpt lat="36.563760" lon="-118.773900">
        <ele>1964.456</ele>
        <time>2018-12-30T15:15:35Z</time>
      </trkpt>
      <trkpt lat="36.563700" lon="-118.773890">
        <ele>1964.421</ele>
        <time>2018-12-30T15:15:55Z</time>
      </trkpt>
      <trkpt lat="36.563410" lon="-118.773790">
        <ele>1965.808</ele>
        <time>2018-12-30T15:16:15Z</time>
      </trkpt>
      <trkpt lat="36.563190" lon="-118.773710">
        <ele>1967.270</ele>
        <time>2018-12-30T15:16:35Z</time>
      </trkpt>
      <trkpt lat="36.562940" lon="-118.773610">
        <ele>1968.818</ele>
        <time>2018-12-30T15:16:55Z</time>
      </trkpt>
      <trkpt lat="36.562720" lon="-118.773550">
        <ele>1969.153</ele>
        <time>2018-12-30T15:17:15Z</time>
      </trkpt>
      <trkpt lat="36.562490" lon="-118.773510">
        <ele>1968.813</ele>
        <time>2018-12-30T15:17:35Z</time>
      </trkpt>
      <trkpt lat="36.562290" lon="-118.773500">
        <ele>1969.457</ele>
        <time>2018-12-30T15:17:55Z</time>
      </trkpt>
      <trkpt lat="36.562120" lon="-118.773540">
        <ele>1970.677</ele>
        <time>2018-12-30T15:18:15Z</time>
      </trkpt>
      <trkpt lat="36.561930" lon="-118.773630">
        <ele>1973.373</ele>
        <time>2018-12-30T15:18:35Z</time>
      </trkpt>
      <trkpt lat="36.561760" lon="-118.773720">
        <ele>1975.492</ele>
        <time>2018-12-30T15:18:55Z</time>
      </trkpt>
      <trkpt lat="36.561540" lon="-118.773770">
        <ele>1976.799</ele>
        <time>2018-12-30T15:19:15Z</time>
      </trkpt>
      <trkpt lat="36.561380" lon="-118.773780">
        <ele>1977.207</ele>
        <time>2018-12-30T15:19:35Z</time>
      </trkpt>
      <trkpt lat="36.561180" lon="-118.773780">
        <ele>1977.827</ele>
        <time>2018-12-30T15:19:55Z</time>
      </trkpt>
      <trkpt lat="36.560930" lon="-118.773770">
        <ele>1977.608</ele>
        <time>2018-12-30T15:20:15Z</time>
      </trkpt>
      <trkpt lat="36.560850" lon="-118.773770">
        <ele>1977.272</ele>
        <time>2018-12-30T15:20:35Z</time>
      </trkpt>
      <trkpt lat="36.560780" lon="-118.773770">
        <ele>1976.950</ele>
        <time>2018-12-30T15:20:55Z</time>
      </trkpt>
      <trkpt lat="36.560720" lon="-118.773750">
        <ele>1976.945</ele>
        <time>2018-12-30T15:21:15Z</time>
      </trkpt>
      <trkpt lat="36.560670" lon="-118.773730">
        <ele>1976.615</ele>
        <time>2018-12-30T15:21:35Z</time>
      </trkpt>
      <trkpt lat="36.560620" lon="-118.773690">
        <ele>1976.369</ele>
        <time>2018-12-30T15:21:55Z</time>
      </trkpt>
      <trkpt lat="36.560590" lon="-118.773660">
        <ele>1976.229</ele>
        <time>2018-12-30T15:22:15Z</time>
      </trkpt>
      <trkpt lat="36.560550" lon="-118.773610">
        <ele>1976.185</ele>
        <time>2018-12-30T15:22:35Z</time>
      </trkpt>
      <trkpt lat="36.560490" lon="-118.773520">
        <ele>1976.014</ele>
        <time>2018-12-30T15:22:55Z</time>
      </trkpt>
      <trkpt lat="36.560020" lon="-118.772860">
        <ele>1983.634</ele>
        <time>2018-12-30T15:23:15Z</time>
      </trkpt>
      <trkpt lat="36.559940" lon="-118.772770">
        <ele>1984.555</ele>
        <time>2018-12-30T15:23:35Z</time>
      </trkpt>
      <trkpt lat="36.559900" lon="-118.772730">
        <ele>1984.910</ele>
        <time>2018-12-30T15:23:55Z</time>
      </trkpt>
      <trkpt lat="36.559860" lon="-118.772700">
        <ele>1985.108</ele>
        <time>2018-12-30T15:24:15Z</time>
      </trkpt>
      <trkpt lat="36.559790" lon="-118.772680">
        <ele>1985.726</ele>
        <time>2018-12-30T15:24:35Z</time>
      </trkpt>
      <trkpt lat="36.559750" lon="-118.772670">
        <ele>1986.184</ele>
        <time>2018-12-30T15:24:55Z</time>
      </trkpt>
      <trkpt lat="36.559540" lon="-118.772680">
        <ele>1986.779</ele>
        <time>2018-12-30T15:25:15Z</time>
      </trkpt>
      <trkpt lat="36.559460" lon="-118.772680">
        <ele>1986.899</ele>
        <time>2018-12-30T15:25:35Z</time>
      </trkpt>
      <trkpt lat="36.559390" lon="-118.772670">
        <ele>1987.173</ele>
        <time>2018-12-30T15:25:55Z</time>
      </trkpt>
      <trkpt lat="36.559260" lon="-118.772640">
        <ele>1987.793</ele>
        <time>2018-12-30T15:26:15Z</time>
      </trkpt>
      <trkpt lat="36.559130" lon="-118.772590">
        <ele>1987.859</ele>
        <time>2018-12-30T15:26:35Z</time>
      </trkpt>
      <trkpt lat="36.559020" lon="-118.772540">
        <ele>1988.038</ele>
        <time>2018-12-30T15:26:55Z</time>
      </trkpt>
      <trkpt lat="36.558980" lon="-118.772510">
        <ele>1988.223</ele>
        <time>2018-12-30T15:27:15Z</time>
      </trkpt>
      <trkpt lat="36.558950" lon="-118.772480">
        <ele>1988.583</ele>
        <time>2018-12-30T15:27:35Z</time>
      </trkpt>
      <trkpt lat="36.558930" lon="-118.772450">
        <ele>1988.811</ele>
        <time>2018-12-30T15:27:55Z</time>
      </trkpt>
      <trkpt lat="36.558910" lon="-118.772420">
        <ele>1989.208</ele>
        <time>2018-12-30T15:28:15Z</time>
      </trkpt>
      <trkpt lat="36.558880" lon="-118.772330">
        <ele>1990.395</ele>
        <time>2018-12-30T15:28:35Z</time>
      </trkpt>
      <trkpt lat="36.558870" lon="-118.772280">
        <ele>1990.823</ele>
        <time>2018-12-30T15:28:55Z</time>
      </trkpt>
      <trkpt lat="36.558760" lon="-118.771810">
        <ele>1994.988</ele>
        <time>2018-12-30T15:29:15Z</time>
      </trkpt>
      <trkpt lat="36.558540" lon="-118.770980">
        <ele>1990.848</ele>
        <time>2018-12-30T15:29:35Z</time>
      </trkpt>
      <trkpt lat="36.558480" lon="-118.770820">
        <ele>1990.162</ele>
        <time>2018-12-30T15:29:55Z</time>
      </trkpt>
      <trkpt lat="36.558390" lon="-118.770630">
        <ele>1989.252</ele>
        <time>2018-12-30T15:30:15Z</time>
      </trkpt>
      <trkpt lat="36.558280" lon="-118.770490">
        <ele>1987.548</ele>
        <time>2018-12-30T15:30:35Z</time>
      </trkpt>
      <trkpt lat="36.558230" lon="-118.770440">
        <ele>1986.857</ele>
        <time>2018-12-30T15:30:55Z</time>
      </trkpt>
      <trkpt lat="36.558190" lon="-118.770410">
        <ele>1986.483</ele>
        <time>2018-12-30T15:31:15Z</time>
      </trkpt>
      <trkpt lat="36.558110" lon="-118.770370">
        <ele>1986.225</ele>
        <time>2018-12-30T15:31:35Z</time>
      </trkpt>
      <trkpt lat="36.558050" lon="-118.770370">
        <ele>1985.917</ele>
        <time>2018-12-30T15:31:55Z</time>
      </trkpt>
      <trkpt lat="36.557990" lon="-118.770400">
        <ele>1985.508</ele>
        <time>2018-12-30T15:32:15Z</time>
      </trkpt>
      <trkpt lat="36.557950" lon="-118.770430">
        <ele>1985.271</ele>
        <time>2018-12-30T15:32:35Z</time>
      </trkpt>
      <trkpt lat="36.557860" lon="-118.770490">
        <ele>1984.859</ele>
        <time>2018-12-30T15:32:55Z</time>
      </trkpt>
      <trkpt lat="36.557770" lon="-118.770540">
        <ele>1984.524</ele>
        <time>2018-12-30T15:33:15Z</time>
      </trkpt>
      <trkpt lat="36.557680" lon="-118.770560">
        <ele>1984.124</ele>
        <time>2018-12-30T15:33:35Z</time>
      </trkpt>
      <trkpt lat="36.557610" lon="-118.770560">
        <ele>1983.798</ele>
        <time>2018-12-30T15:33:55Z</time>
      </trkpt>
      <trkpt lat="36.557560" lon="-118.770560">
        <ele>1983.338</ele>
        <time>2018-12-30T15:34:15Z</time>
      </trkpt>
      <trkpt lat="36.557510" lon="-118.770550">
        <ele>1982.954</ele>
        <time>2018-12-30T15:34:35Z</time>
      </trkpt>
      <trkpt lat="36.557440" lon="-118.770520">
        <ele>1982.693</ele>
        <time>2018-12-30T15:34:55Z</time>
      </trkpt>
      <trkpt lat="36.557400" lon="-118.770480">
        <ele>1982.752</ele>
        <time>2018-12-30T15:35:15Z</time>
      </trkpt>
      <trkpt lat="36.557350" lon="-118.770390">
        <ele>1983.453</ele>
        <time>2018-12-30T15:35:35Z</time>
      </trkpt>
      <trkpt lat="36.557300" lon="-118.770280">
        <ele>1984.208</ele>
        <time>2018-12-30T15:35:55Z</time>
      </trkpt>
      <trkpt lat="36.557230" lon="-118.770060">
        <ele>1986.108</ele>
        <time>2018-12-30T15:36:15Z</time>
      </trkpt>
      <trkpt lat="36.557170" lon="-118.769960">
        <ele>1986.778</ele>
        <time>2018-12-30T15:36:35Z</time>
      </trkpt>
      <trkpt lat="36.557120" lon="-118.769880">
        <ele>1987.076</ele>
        <time>2018-12-30T15:36:55Z</time>
      </trkpt>
      <trkpt lat="36.557070" lon="-118.769850">
        <ele>1986.771</ele>
        <time>2018-12-30T15:37:15Z</time>
      </trkpt>
      <trkpt lat="36.557000" lon="-118.769830">
        <ele>1985.961</ele>
        <time>2018-12-30T15:37:35Z</time>
      </trkpt>
      <trkpt lat="36.556790" lon="-118.769910">
        <ele>1982.335</ele>
        <time>2018-12-30T15:37:55Z</time>
      </trkpt>
      <trkpt lat="36.556690" lon="-118.769960">
        <ele>1981.165</ele>
        <time>2018-12-30T15:38:15Z</time>
      </trkpt>
      <trkpt lat="36.556340" lon="-118.770150">
        <ele>1978.591</ele>
        <time>2018-12-30T15:38:35Z</time>
      </trkpt>
      <trkpt lat="36.556250" lon="-118.770180">
        <ele>1979.030</ele>
        <time>2018-12-30T15:38:55Z</time>
      </trkpt>
      <trkpt lat="36.556140" lon="-118.770200">
        <ele>1979.256</ele>
        <time>2018-12-30T15:39:15Z</time>
      </trkpt>
      <trkpt lat="36.556050" lon="-118.770200">
        <ele>1979.659</ele>
        <time>2018-12-30T15:39:35Z</time>
      </trkpt>
      <trkpt lat="36.555980" lon="-118.770200">
        <ele>1980.014</ele>
        <time>2018-12-30T15:39:55Z</time>
      </trkpt>
      <trkpt lat="36.555920" lon="-118.770180">
        <ele>1980.108</ele>
        <time>2018-12-30T15:40:15Z</time>
      </trkpt>
      <trkpt lat="36.555850" lon="-118.770150">
        <ele>1980.358</ele>
        <time>2018-12-30T15:40:35Z</time>
      </trkpt>
      <trkpt lat="36.555780" lon="-118.770120">
        <ele>1980.636</ele>
        <time>2018-12-30T15:40:55Z</time>
      </trkpt>
      <trkpt lat="36.555480" lon="-118.769910">
        <ele>1981.641</ele>
        <time>2018-12-30T15:41:15Z</time>
      </trkpt>
      <trkpt lat="36.555400" lon="-118.769880">
        <ele>1981.381</ele>
        <time>2018-12-30T15:41:35Z</time>
      </trkpt>
      <trkpt lat="36.555310" lon="-118.769870">
        <ele>1980.735</ele>
        <time>2018-12-30T15:41:55Z</time>
      </trkpt>
      <trkpt lat="36.555220" lon="-118.769880">
        <ele>1979.835</ele>
        <time>2018-12-30T15:42:15Z</time>
      </trkpt>
      <trkpt lat="36.555040" lon="-118.769920">
        <ele>1977.751</ele>
        <time>2018-12-30T15:42:35Z</time>
      </trkpt>
      <trkpt lat="36.554960" lon="-118.769950">
        <ele>1976.630</ele>
        <time>2018-12-30T15:42:55Z</time>
      </trkpt>
      <trkpt lat="36.554910" lon="-118.769950">
        <ele>1976.258</ele>
        <time>2018-12-30T15:43:15Z</time>
      </trkpt>
      <trkpt lat="36.554840" lon="-118.769940">
        <ele>1975.752</ele>
        <time>2018-12-30T15:43:35Z</time>
      </trkpt>
      <trkpt lat="36.554780" lon="-118.769930">
        <ele>1975.117</ele>
        <time>2018-12-30T15:43:55Z</time>
      </trkpt>
      <trkpt lat="36.554580" lon="-118.769710">
        <ele>1976.108</ele>
        <time>2018-12-30T15:44:15Z</time>
      </trkpt>
      <trkpt lat="36.554570" lon="-118.769710">
        <ele>1976.168</ele>
        <time>2018-12-30T15:44:35Z</time>
      </trkpt>
      <trkpt lat="36.554520" lon="-118.769660">
        <ele>1976.726</ele>
        <time>2018-12-30T15:44:55Z</time>
      </trkpt>
      <trkpt lat="36.554420" lon="-118.769600">
        <ele>1977.361</ele>
        <time>2018-12-30T15:45:15Z</time>
      </trkpt>
      <trkpt lat="36.554320" lon="-118.769570">
        <ele>1977.541</ele>
        <time>2018-12-30T15:45:35Z</time>
      </trkpt>
      <trkpt lat="36.554230" lon="-118.769550">
        <ele>1977.775</ele>
        <time>2018-12-30T15:45:55Z</time>
      </trkpt>
      <trkpt lat="36.554100" lon="-118.769530">
        <ele>1977.735</ele>
        <time>2018-12-30T15:46:15Z</time>
      </trkpt>
      <trkpt lat="36.553970" lon="-118.769530">
        <ele>1977.461</ele>
        <time>2018-12-30T15:46:35Z</time>
      </trkpt>
      <trkpt lat="36.553830" lon="-118.769540">
        <ele>1976.730</ele>
        <time>2018-12-30T15:46:55Z</time>
      </trkpt>
      <trkpt lat="36.553740" lon="-118.769540">
        <ele>1976.427</ele>
        <time>2018-12-30T15:47:15Z</time>
      </trkpt>
      <trkpt lat="36.553700" lon="-118.769540">
        <ele>1976.368</ele>
        <time>2018-12-30T15:47:35Z</time>
      </trkpt>
      <trkpt lat="36.553640" lon="-118.769530">
        <ele>1976.314</ele>
        <time>2018-12-30T15:47:55Z</time>
      </trkpt>
      <trkpt lat="36.553600" lon="-118.769510">
        <ele>1976.508</ele>
        <time>2018-12-30T15:48:15Z</time>
      </trkpt>
      <trkpt lat="36.553560" lon="-118.769480">
        <ele>1976.885</ele>
        <time>2018-12-30T15:48:35Z</time>
      </trkpt>
      <trkpt lat="36.553520" lon="-118.769450">
        <ele>1977.193</ele>
        <time>2018-12-30T15:48:55Z</time>
      </trkpt>
      <trkpt lat="36.553480" lon="-118.769400">
        <ele>1977.628</ele>
        <time>2018-12-30T15:49:15Z</time>
      </trkpt>
      <trkpt lat="36.553450" lon="-118.769350">
        <ele>1978.148</ele>
        <time>2018-12-30T15:49:35Z</time>
      </trkpt>
      <trkpt lat="36.553240" lon="-118.769080">
        <ele>1979.292</ele>
        <time>2018-12-30T15:49:55Z</time>
      </trkpt>
      <trkpt lat="36.553180" lon="-118.769040">
        <ele>1979.092</ele>
        <time>2018-12-30T15:50:15Z</time>
      </trkpt>
      <trkpt lat="36.553110" lon="-118.769020">
        <ele>1978.798</ele>
        <time>2018-12-30T15:50:35Z</time>
      </trkpt>
      <trkpt lat="36.553030" lon="-118.769000">
        <ele>1978.587</ele>
        <time>2018-12-30T15:50:55Z</time>
      </trkpt>
      <trkpt lat="36.552970" lon="-118.769010">
        <ele>1978.126</ele>
        <time>2018-12-30T15:51:15Z</time>
      </trkpt>
      <trkpt lat="36.552940" lon="-118.769030">
        <ele>1977.747</ele>
        <time>2018-12-30T15:51:35Z</time>
      </trkpt>
      <trkpt lat="36.552890" lon="-118.769060">
        <ele>1977.211</ele>
        <time>2018-12-30T15:51:55Z</time>
      </trkpt>
      <trkpt lat="36.552870" lon="-118.769090">
        <ele>1976.908</ele>
        <time>2018-12-30T15:52:15Z</time>
      </trkpt>
      <trkpt lat="36.552840" lon="-118.769120">
        <ele>1976.645</ele>
        <time>2018-12-30T15:52:35Z</time>
      </trkpt>
      <trkpt lat="36.552800" lon="-118.769190">
        <ele>1975.713</ele>
        <time>2018-12-30T15:52:55Z</time>
      </trkpt>
      <trkpt lat="36.552790" lon="-118.769230">
        <ele>1975.238</ele>
        <time>2018-12-30T15:53:15Z</time>
      </trkpt>
      <trkpt lat="36.552770" lon="-118.769280">
        <ele>1974.698</ele>
        <time>2018-12-30T15:53:35Z</time>
      </trkpt>
      <trkpt lat="36.552740" lon="-118.769310">
        <ele>1974.282</ele>
        <time>2018-12-30T15:53:55Z</time>
      </trkpt>
      <trkpt lat="36.552690" lon="-118.769330">
        <ele>1973.832</ele>
        <time>2018-12-30T15:54:15Z</time>
      </trkpt>
      <trkpt lat="36.552570" lon="-118.769310">
        <ele>1974.458</ele>
        <time>2018-12-30T15:54:35Z</time>
      </trkpt>
      <trkpt lat="36.552420" lon="-118.769300">
        <ele>1974.877</ele>
        <time>2018-12-30T15:54:55Z</time>
      </trkpt>
      <trkpt lat="36.552190" lon="-118.769340">
        <ele>1973.671</ele>
        <time>2018-12-30T15:55:15Z</time>
      </trkpt>
      <trkpt lat="36.552030" lon="-118.769350">
        <ele>1972.541</ele>
        <time>2018-12-30T15:55:35Z</time>
      </trkpt>
      <trkpt lat="36.551980" lon="-118.769330">
        <ele>1972.815</ele>
        <time>2018-12-30T15:55:55Z</time>
      </trkpt>
      <trkpt lat="36.551930" lon="-118.769290">
        <ele>1973.508</ele>
        <time>2018-12-30T15:56:15Z</time>
      </trkpt>
      <trkpt lat="36.551870" lon="-118.769190">
        <ele>1975.180</ele>
        <time>2018-12-30T15:56:35Z</time>
      </trkpt>
      <trkpt lat="36.551790" lon="-118.769080">
        <ele>1977.048</ele>
        <time>2018-12-30T15:56:55Z</time>
      </trkpt>
      <trkpt lat="36.551570" lon="-118.768810">
        <ele>1980.243</ele>
        <time>2018-12-30T15:57:15Z</time>
      </trkpt>
      <trkpt lat="36.551460" lon="-118.768680">
        <ele>1981.383</ele>
        <time>2018-12-30T15:57:35Z</time>
      </trkpt>
      <trkpt lat="36.551110" lon="-118.768320">
        <ele>1983.157</ele>
        <time>2018-12-30T15:57:55Z</time>
      </trkpt>
      <trkpt lat="36.550980" lon="-118.768170">
        <ele>1983.547</ele>
        <time>2018-12-30T15:58:15Z</time>
      </trkpt>
      <trkpt lat="36.550880" lon="-118.767970">
        <ele>1985.233</ele>
        <time>2018-12-30T15:58:35Z</time>
      </trkpt>
      <trkpt lat="36.550780" lon="-118.767790">
        <ele>1987.062</ele>
        <time>2018-12-30T15:58:55Z</time>
      </trkpt>
      <trkpt lat="36.550710" lon="-118.767590">
        <ele>1989.414</ele>
        <time>2018-12-30T15:59:15Z</time>
      </trkpt>
      <trkpt lat="36.550680" lon="-118.767420">
        <ele>1990.354</ele>
        <time>2018-12-30T15:59:35Z</time>
      </trkpt>
      <trkpt lat="36.550660" lon="-118.767080">
        <ele>1991.709</ele>
        <time>2018-12-30T15:59:55Z</time>
      </trkpt>
      <trkpt lat="36.550740" lon="-118.766810">
        <ele>1993.008</ele>
        <time>2018-12-30T16:00:15Z</time>
      </trkpt>
      <trkpt lat="36.550760" lon="-118.766540">
        <ele>1994.584</ele>
        <time>2018-12-30T16:00:35Z</time>
      </trkpt>
      <trkpt lat="36.550730" lon="-118.766290">
        <ele>1995.492</ele>
        <time>2018-12-30T16:00:55Z</time>
      </trkpt>
      <trkpt lat="36.550660" lon="-118.766030">
        <ele>1996.237</ele>
        <time>2018-12-30T16:01:15Z</time>
      </trkpt>
      <trkpt lat="36.550640" lon="-118.765930">
        <ele>1996.327</ele>
        <time>2018-12-30T16:01:35Z</time>
      </trkpt>
      <trkpt lat="36.550570" lon="-118.765420">
        <ele>1994.931</ele>
        <time>2018-12-30T16:01:55Z</time>
      </trkpt>
      <trkpt lat="36.550500" lon="-118.764950">
        <ele>1993.341</ele>
        <time>2018-12-30T16:02:15Z</time>
      </trkpt>
      <trkpt lat="36.550490" lon="-118.764800">
        <ele>1992.897</ele>
        <time>2018-12-30T16:02:35Z</time>
      </trkpt>
      <trkpt lat="36.550500" lon="-118.764660">
        <ele>1992.626</ele>
        <time>2018-12-30T16:02:55Z</time>
      </trkpt>
      <trkpt lat="36.550540" lon="-118.764470">
        <ele>1992.817</ele>
        <time>2018-12-30T16:03:15Z</time>
      </trkpt>
      <trkpt lat="36.550730" lon="-118.764030">
        <ele>1994.587</ele>
        <time>2018-12-30T16:03:35Z</time>
      </trkpt>
      <trkpt lat="36.550870" lon="-118.763840">
        <ele>1996.115</ele>
        <time>2018-12-30T16:03:55Z</time>
      </trkpt>
      <trkpt lat="36.550920" lon="-118.763790">
        <ele>1996.708</ele>
        <time>2018-12-30T16:04:15Z</time>
      </trkpt>
      <trkpt lat="36.550970" lon="-118.763760">
        <ele>1997.454</ele>
        <time>2018-12-30T16:04:35Z</time>
      </trkpt>
      <trkpt lat="36.551230" lon="-118.763680">
        <ele>2000.362</ele>
        <time>2018-12-30T16:04:55Z</time>
      </trkpt>
      <trkpt lat="36.551440" lon="-118.763540">
        <ele>2000.517</ele>
        <time>2018-12-30T16:05:15Z</time>
      </trkpt>
      <trkpt lat="36.551580" lon="-118.763440">
        <ele>2000.057</ele>
        <time>2018-12-30T16:05:35Z</time>
      </trkpt>
      <trkpt lat="36.551710" lon="-118.763340">
        <ele>1999.491</ele>
        <time>2018-12-30T16:05:55Z</time>
      </trkpt>
      <trkpt lat="36.551800" lon="-118.763220">
        <ele>1998.541</ele>
        <time>2018-12-30T16:06:15Z</time>
      </trkpt>
      <trkpt lat="36.551880" lon="-118.763070">
        <ele>1997.717</ele>
        <time>2018-12-30T16:06:35Z</time>
      </trkpt>
      <trkpt lat="36.551950" lon="-118.762920">
        <ele>1997.166</ele>
        <time>2018-12-30T16:06:55Z</time>
      </trkpt>
      <trkpt lat="36.552020" lon="-118.762620">
        <ele>1995.851</ele>
        <time>2018-12-30T16:07:15Z</time>
      </trkpt>
      <trkpt lat="36.552160" lon="-118.762200">
        <ele>1994.501</ele>
        <time>2018-12-30T16:07:35Z</time>
      </trkpt>
      <trkpt lat="36.552410" lon="-118.761690">
        <ele>1992.511</ele>
        <time>2018-12-30T16:07:55Z</time>
      </trkpt>
      <trkpt lat="36.552450" lon="-118.761620">
        <ele>1992.408</ele>
        <time>2018-12-30T16:08:15Z</time>
      </trkpt>
      <trkpt lat="36.552490" lon="-118.761580">
        <ele>1992.528</ele>
        <time>2018-12-30T16:08:35Z</time>
      </trkpt>
      <trkpt lat="36.552520" lon="-118.761550">
        <ele>1992.586</ele>
        <time>2018-12-30T16:08:55Z</time>
      </trkpt>
      <trkpt lat="36.552590" lon="-118.761520">
        <ele>1993.011</ele>
        <time>2018-12-30T16:09:15Z</time>
      </trkpt>
      <trkpt lat="36.552591" lon="-118.761522">
        <ele>1993.051</ele>
        <time>2018-12-30T16:09:35Z</time>
      </trkpt>
      <trkpt lat="36.552591" lon="-118.761522">
        <ele>1993.088</ele>
        <time>2018-12-27T13:52:00Z</time>
      </trkpt>
      <trkpt lat="36.552520" lon="-118.761550">
        <ele>1992.524</ele>
        <time>2018-12-27T13:52:20Z</time>
      </trkpt>
      <trkpt lat="36.552490" lon="-118.761580">
        <ele>1992.526</ele>
        <time>2018-12-27T13:52:40Z</time>
      </trkpt>
      <trkpt lat="36.552450" lon="-118.761620">
        <ele>1992.408</ele>
        <time>2018-12-27T13:53:00Z</time>
      </trkpt>
      <trkpt lat="36.552410" lon="-118.761690">
        <ele>1992.591</ele>
        <time>2018-12-27T13:53:20Z</time>
      </trkpt>
      <trkpt lat="36.552160" lon="-118.762200">
        <ele>1994.579</ele>
        <time>2018-12-27T13:53:40Z</time>
      </trkpt>
      <trkpt lat="36.552020" lon="-118.762620">
        <ele>1995.864</ele>
        <time>2018-12-27T13:54:00Z</time>
      </trkpt>
      <trkpt lat="36.551950" lon="-118.762920">
        <ele>1997.174</ele>
        <time>2018-12-27T13:54:20Z</time>
      </trkpt>
      <trkpt lat="36.551880" lon="-118.763070">
        <ele>1997.788</ele>
        <time>2018-12-27T13:54:40Z</time>
      </trkpt>
      <trkpt lat="36.551800" lon="-118.763220">
        <ele>1998.521</ele>
        <time>2018-12-27T13:55:00Z</time>
      </trkpt>
      <trkpt lat="36.551710" lon="-118.763340">
        <ele>1999.482</ele>
        <time>2018-12-27T13:55:20Z</time>
      </trkpt>
      <trkpt lat="36.551580" lon="-118.763440">
        <ele>2000.045</ele>
        <time>2018-12-27T13:55:40Z</time>
      </trkpt>
      <trkpt lat="36.551440" lon="-118.763540">
        <ele>2000.595</ele>
        <time>2018-12-27T13:56:00Z</time>
      </trkpt>
      <trkpt lat="36.551230" lon="-118.763680">
        <ele>2000.349</ele>
        <time>2018-12-27T13:56:20Z</time>
      </trkpt>
      <trkpt lat="36.550970" lon="-118.763760">
        <ele>1997.423</ele>
        <time>2018-12-27T13:56:40Z</time>
      </trkpt>
      <trkpt lat="36.550920" lon="-118.763790">
        <ele>1996.708</ele>
        <time>2018-12-27T13:57:00Z</time>
      </trkpt>
      <trkpt lat="36.550870" lon="-118.763840">
        <ele>1996.182</ele>
        <time>2018-12-27T13:57:20Z</time>
      </trkpt>
      <trkpt lat="36.550730" lon="-118.764030">
        <ele>1994.560</ele>
        <time>2018-12-27T13:57:40Z</time>
      </trkpt>
      <trkpt lat="36.550540" lon="-118.764470">
        <ele>1992.815</ele>
        <time>2018-12-27T13:58:00Z</time>
      </trkpt>
      <trkpt lat="36.550500" lon="-118.764660">
        <ele>1992.645</ele>
        <time>2018-12-27T13:58:20Z</time>
      </trkpt>
      <trkpt lat="36.550490" lon="-118.764800">
        <ele>1992.859</ele>
        <time>2018-12-27T13:58:40Z</time>
      </trkpt>
      <trkpt lat="36.550500" lon="-118.764950">
        <ele>1993.372</ele>
        <time>2018-12-27T13:59:00Z</time>
      </trkpt>
      <trkpt lat="36.550570" lon="-118.765420">
        <ele>1994.983</ele>
        <time>2018-12-27T13:59:20Z</time>
      </trkpt>
      <trkpt lat="36.550640" lon="-118.765930">
        <ele>1996.366</ele>
        <time>2018-12-27T13:59:40Z</time>
      </trkpt>
      <trkpt lat="36.550660" lon="-118.766030">
        <ele>1996.269</ele>
        <time>2018-12-27T14:00:00Z</time>
      </trkpt>
      <trkpt lat="36.550730" lon="-118.766290">
        <ele>1995.404</ele>
        <time>2018-12-27T14:00:20Z</time>
      </trkpt>
      <trkpt lat="36.550760" lon="-118.766540">
        <ele>1994.524</ele>
        <time>2018-12-27T14:00:40Z</time>
      </trkpt>
      <trkpt lat="36.550740" lon="-118.766810">
        <ele>1993.008</ele>
        <time>2018-12-27T14:01:00Z</time>
      </trkpt>
      <trkpt lat="36.550660" lon="-118.767080">
        <ele>1991.719</ele>
        <time>2018-12-27T14:01:20Z</time>
      </trkpt>
      <trkpt lat="36.550680" lon="-118.767420">
        <ele>1990.367</ele>
        <time>2018-12-27T14:01:40Z</time>
      </trkpt>
      <trkpt lat="36.550710" lon="-118.767590">
        <ele>1989.412</ele>
        <time>2018-12-27T14:02:00Z</time>
      </trkpt>
      <trkpt lat="36.550780" lon="-118.767790">
        <ele>1987.072</ele>
        <time>2018-12-27T14:02:20Z</time>
      </trkpt>
      <trkpt lat="36.550880" lon="-118.767970">
        <ele>1985.266</ele>
        <time>2018-12-27T14:02:40Z</time>
      </trkpt>
      <trkpt lat="36.550980" lon="-118.768170">
        <ele>1983.539</ele>
        <time>2018-12-27T14:03:00Z</time>
      </trkpt>
      <trkpt lat="36.551110" lon="-118.768320">
        <ele>1983.160</ele>
        <time>2018-12-27T14:03:20Z</time>
      </trkpt>
      <trkpt lat="36.551460" lon="-118.768680">
        <ele>1981.373</ele>
        <time>2018-12-27T14:03:40Z</time>
      </trkpt>
      <trkpt lat="36.551570" lon="-118.768810">
        <ele>1980.234</ele>
        <time>2018-12-27T14:04:00Z</time>
      </trkpt>
      <trkpt lat="36.551790" lon="-118.769080">
        <ele>1977.055</ele>
        <time>2018-12-27T14:04:20Z</time>
      </trkpt>
      <trkpt lat="36.551870" lon="-118.769190">
        <ele>1975.110</ele>
        <time>2018-12-27T14:04:40Z</time>
      </trkpt>
      <trkpt lat="36.551930" lon="-118.769290">
        <ele>1973.508</ele>
        <time>2018-12-27T14:05:00Z</time>
      </trkpt>
      <trkpt lat="36.551980" lon="-118.769330">
        <ele>1972.896</ele>
        <time>2018-12-27T14:05:20Z</time>
      </trkpt>
      <trkpt lat="36.552030" lon="-118.769350">
        <ele>1972.584</ele>
        <time>2018-12-27T14:05:40Z</time>
      </trkpt>
      <trkpt lat="36.552190" lon="-118.769340">
        <ele>1973.659</ele>
        <time>2018-12-27T14:06:00Z</time>
      </trkpt>
      <trkpt lat="36.552420" lon="-118.769300">
        <ele>1974.829</ele>
        <time>2018-12-27T14:06:20Z</time>
      </trkpt>
      <trkpt lat="36.552570" lon="-118.769310">
        <ele>1974.453</ele>
        <time>2018-12-27T14:06:40Z</time>
      </trkpt>
      <trkpt lat="36.552690" lon="-118.769330">
        <ele>1973.846</ele>
        <time>2018-12-27T14:07:00Z</time>
      </trkpt>
      <trkpt lat="36.552740" lon="-118.769310">
        <ele>1974.287</ele>
        <time>2018-12-27T14:07:20Z</time>
      </trkpt>
      <trkpt lat="36.552770" lon="-118.769280">
        <ele>1974.670</ele>
        <time>2018-12-27T14:07:40Z</time>
      </trkpt>
      <trkpt lat="36.552790" lon="-118.769230">
        <ele>1975.279</ele>
        <time>2018-12-27T14:08:00Z</time>
      </trkpt>
      <trkpt lat="36.552800" lon="-118.769190">
        <ele>1975.705</ele>
        <time>2018-12-27T14:08:20Z</time>
      </trkpt>
      <trkpt lat="36.552840" lon="-118.769120">
        <ele>1976.625</ele>
        <time>2018-12-27T14:08:40Z</time>
      </trkpt>
      <trkpt lat="36.552870" lon="-118.769090">
        <ele>1976.908</ele>
        <time>2018-12-27T14:09:00Z</time>
      </trkpt>
      <trkpt lat="36.552890" lon="-118.769060">
        <ele>1977.290</ele>
        <time>2018-12-27T14:09:20Z</time>
      </trkpt>
      <trkpt lat="36.552940" lon="-118.769030">
        <ele>1977.788</ele>
        <time>2018-12-27T14:09:40Z</time>
      </trkpt>
      <trkpt lat="36.552970" lon="-118.769010">
        <ele>1978.113</ele>
        <time>2018-12-27T14:10:00Z</time>
      </trkpt>
      <trkpt lat="36.553030" lon="-118.769000">
        <ele>1978.523</ele>
        <time>2018-12-27T14:10:20Z</time>
      </trkpt>
      <trkpt lat="36.553110" lon="-118.769020">
        <ele>1978.727</ele>
        <time>2018-12-27T14:10:40Z</time>
      </trkpt>
      <trkpt lat="36.553180" lon="-118.769040">
        <ele>1979.040</ele>
        <time>2018-12-27T14:11:00Z</time>
      </trkpt>
      <trkpt lat="36.553240" lon="-118.769080">
        <ele>1979.281</ele>
        <time>2018-12-27T14:11:20Z</time>
      </trkpt>
      <trkpt lat="36.553450" lon="-118.769350">
        <ele>1978.184</ele>
        <time>2018-12-27T14:11:40Z</time>
      </trkpt>
      <trkpt lat="36.553480" lon="-118.769400">
        <ele>1977.627</ele>
        <time>2018-12-27T14:12:00Z</time>
      </trkpt>
      <trkpt lat="36.553520" lon="-118.769450">
        <ele>1977.168</ele>
        <time>2018-12-27T14:12:20Z</time>
      </trkpt>
      <trkpt lat="36.553560" lon="-118.769480">
        <ele>1976.814</ele>
        <time>2018-12-27T14:12:40Z</time>
      </trkpt>
      <trkpt lat="36.553600" lon="-118.769510">
        <ele>1976.508</ele>
        <time>2018-12-27T14:13:00Z</time>
      </trkpt>
      <trkpt lat="36.553640" lon="-118.769530">
        <ele>1976.325</ele>
        <time>2018-12-27T14:13:20Z</time>
      </trkpt>
      <trkpt lat="36.553700" lon="-118.769540">
        <ele>1976.323</ele>
        <time>2018-12-27T14:13:40Z</time>
      </trkpt>
      <trkpt lat="36.553740" lon="-118.769540">
        <ele>1976.418</ele>
        <time>2018-12-27T14:14:00Z</time>
      </trkpt>
      <trkpt lat="36.553830" lon="-118.769540">
        <ele>1976.748</ele>
        <time>2018-12-27T14:14:20Z</time>
      </trkpt>
      <trkpt lat="36.553970" lon="-118.769530">
        <ele>1977.442</ele>
        <time>2018-12-27T14:14:40Z</time>
      </trkpt>
      <trkpt lat="36.554100" lon="-118.769530">
        <ele>1977.735</ele>
        <time>2018-12-27T14:15:00Z</time>
      </trkpt>
      <trkpt lat="36.554230" lon="-118.769550">
        <ele>1977.736</ele>
        <time>2018-12-27T14:15:20Z</time>
      </trkpt>
      <trkpt lat="36.554320" lon="-118.769570">
        <ele>1977.549</ele>
        <time>2018-12-27T14:15:40Z</time>
      </trkpt>
      <trkpt lat="36.554420" lon="-118.769600">
        <ele>1977.329</ele>
        <time>2018-12-27T14:16:00Z</time>
      </trkpt>
      <trkpt lat="36.554520" lon="-118.769660">
        <ele>1976.700</ele>
        <time>2018-12-27T14:16:20Z</time>
      </trkpt>
      <trkpt lat="36.554570" lon="-118.769710">
        <ele>1976.120</ele>
        <time>2018-12-27T14:16:40Z</time>
      </trkpt>
      <trkpt lat="36.554580" lon="-118.769710">
        <ele>1976.108</ele>
        <time>2018-12-27T14:17:00Z</time>
      </trkpt>
      <trkpt lat="36.554780" lon="-118.769930">
        <ele>1975.175</ele>
        <time>2018-12-27T14:17:20Z</time>
      </trkpt>
      <trkpt lat="36.554840" lon="-118.769940">
        <ele>1975.743</ele>
        <time>2018-12-27T14:17:40Z</time>
      </trkpt>
      <trkpt lat="36.554910" lon="-118.769950">
        <ele>1976.248</ele>
        <time>2018-12-27T14:18:00Z</time>
      </trkpt>
      <trkpt lat="36.554960" lon="-118.769950">
        <ele>1976.668</ele>
        <time>2018-12-27T14:18:20Z</time>
      </trkpt>
      <trkpt lat="36.555040" lon="-118.769920">
        <ele>1977.742</ele>
        <time>2018-12-27T14:18:40Z</time>
      </trkpt>
      <trkpt lat="36.555220" lon="-118.769880">
        <ele>1979.885</ele>
        <time>2018-12-27T14:19:00Z</time>
      </trkpt>
      <trkpt lat="36.555310" lon="-118.769870">
        <ele>1980.766</ele>
        <time>2018-12-27T14:19:20Z</time>
      </trkpt>
      <trkpt lat="36.555400" lon="-118.769880">
        <ele>1981.369</ele>
        <time>2018-12-27T14:19:40Z</time>
      </trkpt>
      <trkpt lat="36.555480" lon="-118.769910">
        <ele>1981.677</ele>
        <time>2018-12-27T14:20:00Z</time>
      </trkpt>
      <trkpt lat="36.555780" lon="-118.770120">
        <ele>1980.661</ele>
        <time>2018-12-27T14:20:20Z</time>
      </trkpt>
      <trkpt lat="36.555850" lon="-118.770150">
        <ele>1980.327</ele>
        <time>2018-12-27T14:20:40Z</time>
      </trkpt>
      <trkpt lat="36.555920" lon="-118.770180">
        <ele>1980.108</ele>
        <time>2018-12-27T14:21:00Z</time>
      </trkpt>
      <trkpt lat="36.555980" lon="-118.770200">
        <ele>1980.060</ele>
        <time>2018-12-27T14:21:20Z</time>
      </trkpt>
      <trkpt lat="36.556050" lon="-118.770200">
        <ele>1979.628</ele>
        <time>2018-12-27T14:21:40Z</time>
      </trkpt>
      <trkpt lat="36.556140" lon="-118.770200">
        <ele>1979.263</ele>
        <time>2018-12-27T14:22:00Z</time>
      </trkpt>
      <trkpt lat="36.556250" lon="-118.770180">
        <ele>1979.013</ele>
        <time>2018-12-27T14:22:20Z</time>
      </trkpt>
      <trkpt lat="36.556340" lon="-118.770150">
        <ele>1978.587</ele>
        <time>2018-12-27T14:22:40Z</time>
      </trkpt>
      <trkpt lat="36.556690" lon="-118.769960">
        <ele>1981.120</ele>
        <time>2018-12-27T14:23:00Z</time>
      </trkpt>
      <trkpt lat="36.556790" lon="-118.769910">
        <ele>1982.321</ele>
        <time>2018-12-27T14:23:20Z</time>
      </trkpt>
      <trkpt lat="36.557000" lon="-118.769830">
        <ele>1985.984</ele>
        <time>2018-12-27T14:23:40Z</time>
      </trkpt>
      <trkpt lat="36.557070" lon="-118.769850">
        <ele>1986.789</ele>
        <time>2018-12-27T14:24:00Z</time>
      </trkpt>
      <trkpt lat="36.557120" lon="-118.769880">
        <ele>1987.006</ele>
        <time>2018-12-27T14:24:20Z</time>
      </trkpt>
      <trkpt lat="36.557170" lon="-118.769960">
        <ele>1986.726</ele>
        <time>2018-12-27T14:24:40Z</time>
      </trkpt>
      <trkpt lat="36.557230" lon="-118.770060">
        <ele>1986.108</ele>
        <time>2018-12-27T14:25:00Z</time>
      </trkpt>
      <trkpt lat="36.557300" lon="-118.770280">
        <ele>1984.261</ele>
        <time>2018-12-27T14:25:20Z</time>
      </trkpt>
      <trkpt lat="36.557350" lon="-118.770390">
        <ele>1983.469</ele>
        <time>2018-12-27T14:25:40Z</time>
      </trkpt>
      <trkpt lat="36.557400" lon="-118.770480">
        <ele>1982.714</ele>
        <time>2018-12-27T14:26:00Z</time>
      </trkpt>
      <trkpt lat="36.557440" lon="-118.770520">
        <ele>1982.624</ele>
        <time>2018-12-27T14:26:20Z</time>
      </trkpt>
      <trkpt lat="36.557510" lon="-118.770550">
        <ele>1982.978</ele>
        <time>2018-12-27T14:26:40Z</time>
      </trkpt>
      <trkpt lat="36.557560" lon="-118.770560">
        <ele>1983.361</ele>
        <time>2018-12-27T14:27:00Z</time>
      </trkpt>
      <trkpt lat="36.557610" lon="-118.770560">
        <ele>1983.772</ele>
        <time>2018-12-27T14:27:20Z</time>
      </trkpt>
      <trkpt lat="36.557680" lon="-118.770560">
        <ele>1984.175</ele>
        <time>2018-12-27T14:27:40Z</time>
      </trkpt>
      <trkpt lat="36.557770" lon="-118.770540">
        <ele>1984.586</ele>
        <time>2018-12-27T14:28:00Z</time>
      </trkpt>
      <trkpt lat="36.557860" lon="-118.770490">
        <ele>1984.860</ele>
        <time>2018-12-27T14:28:20Z</time>
      </trkpt>
      <trkpt lat="36.557950" lon="-118.770430">
        <ele>1985.226</ele>
        <time>2018-12-27T14:28:40Z</time>
      </trkpt>
      <trkpt lat="36.557990" lon="-118.770400">
        <ele>1985.508</ele>
        <time>2018-12-27T14:29:00Z</time>
      </trkpt>
      <trkpt lat="36.558050" lon="-118.770370">
        <ele>1985.971</ele>
        <time>2018-12-27T14:29:20Z</time>
      </trkpt>
      <trkpt lat="36.558110" lon="-118.770370">
        <ele>1986.219</ele>
        <time>2018-12-27T14:29:40Z</time>
      </trkpt>
      <trkpt lat="36.558190" lon="-118.770410">
        <ele>1986.464</ele>
        <time>2018-12-27T14:30:00Z</time>
      </trkpt>
      <trkpt lat="36.558230" lon="-118.770440">
        <ele>1986.874</ele>
        <time>2018-12-27T14:30:20Z</time>
      </trkpt>
      <trkpt lat="36.558280" lon="-118.770490">
        <ele>1987.578</ele>
        <time>2018-12-27T14:30:40Z</time>
      </trkpt>
      <trkpt lat="36.558390" lon="-118.770630">
        <ele>1989.221</ele>
        <time>2018-12-27T14:31:00Z</time>
      </trkpt>
      <trkpt lat="36.558480" lon="-118.770820">
        <ele>1990.162</ele>
        <time>2018-12-27T14:31:20Z</time>
      </trkpt>
      <trkpt lat="36.558540" lon="-118.770980">
        <ele>1990.855</ele>
        <time>2018-12-27T14:31:40Z</time>
      </trkpt>
      <trkpt lat="36.558760" lon="-118.771810">
        <ele>1994.928</ele>
        <time>2018-12-27T14:32:00Z</time>
      </trkpt>
      <trkpt lat="36.558870" lon="-118.772280">
        <ele>1990.889</ele>
        <time>2018-12-27T14:32:20Z</time>
      </trkpt>
      <trkpt lat="36.558880" lon="-118.772330">
        <ele>1990.317</ele>
        <time>2018-12-27T14:32:40Z</time>
      </trkpt>
      <trkpt lat="36.558910" lon="-118.772420">
        <ele>1989.208</ele>
        <time>2018-12-27T14:33:00Z</time>
      </trkpt>
      <trkpt lat="36.558930" lon="-118.772450">
        <ele>1988.825</ele>
        <time>2018-12-27T14:33:20Z</time>
      </trkpt>
      <trkpt lat="36.558950" lon="-118.772480">
        <ele>1988.593</ele>
        <time>2018-12-27T14:33:40Z</time>
      </trkpt>
      <trkpt lat="36.558980" lon="-118.772510">
        <ele>1988.238</ele>
        <time>2018-12-27T14:34:00Z</time>
      </trkpt>
      <trkpt lat="36.559020" lon="-118.772540">
        <ele>1988.088</ele>
        <time>2018-12-27T14:34:20Z</time>
      </trkpt>
      <trkpt lat="36.559130" lon="-118.772590">
        <ele>1987.842</ele>
        <time>2018-12-27T14:34:40Z</time>
      </trkpt>
      <trkpt lat="36.559260" lon="-118.772640">
        <ele>1987.735</ele>
        <time>2018-12-27T14:35:00Z</time>
      </trkpt>
      <trkpt lat="36.559390" lon="-118.772670">
        <ele>1987.126</ele>
        <time>2018-12-27T14:35:20Z</time>
      </trkpt>
      <trkpt lat="36.559460" lon="-118.772680">
        <ele>1986.859</ele>
        <time>2018-12-27T14:35:40Z</time>
      </trkpt>
      <trkpt lat="36.559540" lon="-118.772680">
        <ele>1986.754</ele>
        <time>2018-12-27T14:36:00Z</time>
      </trkpt>
      <trkpt lat="36.559750" lon="-118.772670">
        <ele>1986.156</ele>
        <time>2018-12-27T14:36:20Z</time>
      </trkpt>
      <trkpt lat="36.559790" lon="-118.772680">
        <ele>1985.711</ele>
        <time>2018-12-27T14:36:40Z</time>
      </trkpt>
      <trkpt lat="36.559860" lon="-118.772700">
        <ele>1985.108</ele>
        <time>2018-12-27T14:37:00Z</time>
      </trkpt>
      <trkpt lat="36.559900" lon="-118.772730">
        <ele>1984.938</ele>
        <time>2018-12-27T14:37:20Z</time>
      </trkpt>
      <trkpt lat="36.559940" lon="-118.772770">
        <ele>1984.586</ele>
        <time>2018-12-27T14:37:40Z</time>
      </trkpt>
      <trkpt lat="36.560020" lon="-118.772860">
        <ele>1983.691</ele>
        <time>2018-12-27T14:38:00Z</time>
      </trkpt>
      <trkpt lat="36.560490" lon="-118.773520">
        <ele>1976.081</ele>
        <time>2018-12-27T14:38:20Z</time>
      </trkpt>
      <trkpt lat="36.560550" lon="-118.773610">
        <ele>1976.125</ele>
        <time>2018-12-27T14:38:40Z</time>
      </trkpt>
      <trkpt lat="36.560590" lon="-118.773660">
        <ele>1976.248</ele>
        <time>2018-12-27T14:39:00Z</time>
      </trkpt>
      <trkpt lat="36.560620" lon="-118.773690">
        <ele>1976.369</ele>
        <time>2018-12-27T14:39:20Z</time>
      </trkpt>
      <trkpt lat="36.560670" lon="-118.773730">
        <ele>1976.652</ele>
        <time>2018-12-27T14:39:40Z</time>
      </trkpt>
      <trkpt lat="36.560720" lon="-118.773750">
        <ele>1976.955</ele>
        <time>2018-12-27T14:40:00Z</time>
      </trkpt>
      <trkpt lat="36.560780" lon="-118.773770">
        <ele>1976.907</ele>
        <time>2018-12-27T14:40:20Z</time>
      </trkpt>
      <trkpt lat="36.560850" lon="-118.773770">
        <ele>1977.217</ele>
        <time>2018-12-27T14:40:40Z</time>
      </trkpt>
      <trkpt lat="36.560930" lon="-118.773770">
        <ele>1977.608</ele>
        <time>2018-12-27T14:41:00Z</time>
      </trkpt>
      <trkpt lat="36.561180" lon="-118.773780">
        <ele>1977.888</ele>
        <time>2018-12-27T14:41:20Z</time>
      </trkpt>
      <trkpt lat="36.561380" lon="-118.773780">
        <ele>1977.266</ele>
        <time>2018-12-27T14:41:40Z</time>
      </trkpt>
      <trkpt lat="36.561540" lon="-118.773770">
        <ele>1976.771</ele>
        <time>2018-12-27T14:42:00Z</time>
      </trkpt>
      <trkpt lat="36.561760" lon="-118.773720">
        <ele>1975.471</ele>
        <time>2018-12-27T14:42:20Z</time>
      </trkpt>
      <trkpt lat="36.561930" lon="-118.773630">
        <ele>1973.315</ele>
        <time>2018-12-27T14:42:40Z</time>
      </trkpt>
      <trkpt lat="36.562120" lon="-118.773540">
        <ele>1970.658</ele>
        <time>2018-12-27T14:43:00Z</time>
      </trkpt>
      <trkpt lat="36.562290" lon="-118.773500">
        <ele>1969.439</ele>
        <time>2018-12-27T14:43:20Z</time>
      </trkpt>
      <trkpt lat="36.562490" lon="-118.773510">
        <ele>1968.882</ele>
        <time>2018-12-27T14:43:40Z</time>
      </trkpt>
      <trkpt lat="36.562720" lon="-118.773550">
        <ele>1969.113</ele>
        <time>2018-12-27T14:44:00Z</time>
      </trkpt>
      <trkpt lat="36.562940" lon="-118.773610">
        <ele>1968.843</ele>
        <time>2018-12-27T14:44:20Z</time>
      </trkpt>
      <trkpt lat="36.563190" lon="-118.773710">
        <ele>1967.207</ele>
        <time>2018-12-27T14:44:40Z</time>
      </trkpt>
      <trkpt lat="36.563410" lon="-118.773790">
        <ele>1965.808</ele>
        <time>2018-12-27T14:45:00Z</time>
      </trkpt>
      <trkpt lat="36.563700" lon="-118.773890">
        <ele>1964.424</ele>
        <time>2018-12-27T14:45:20Z</time>
      </trkpt>
      <trkpt lat="36.563760" lon="-118.773900">
        <ele>1964.412</ele>
        <time>2018-12-27T14:45:40Z</time>
      </trkpt>
      <trkpt lat="36.563800" lon="-118.773900">
        <ele>1964.347</ele>
        <time>2018-12-27T14:46:00Z</time>
      </trkpt>
      <trkpt lat="36.563870" lon="-118.773890">
        <ele>1964.217</ele>
        <time>2018-12-27T14:46:20Z</time>
      </trkpt>
      <trkpt lat="36.563910" lon="-118.773870">
        <ele>1964.351</ele>
        <time>2018-12-27T14:46:40Z</time>
      </trkpt>
      <trkpt lat="36.563960" lon="-118.773840">
        <ele>1964.484</ele>
        <time>2018-12-27T14:47:00Z</time>
      </trkpt>
      <trkpt lat="36.564230" lon="-118.773500">
        <ele>1965.265</ele>
        <time>2018-12-27T14:47:20Z</time>
      </trkpt>
      <trkpt lat="36.564380" lon="-118.773300">
        <ele>1965.458</ele>
        <time>2018-12-27T14:47:40Z</time>
      </trkpt>
      <trkpt lat="36.564380" lon="-118.773304">
        <ele>1965.382</ele>
        <time>2018-12-27T14:48:00Z</time>
      </trkpt>
      <trkpt lat="36.564470" lon="-118.773350">
        <ele>1964.243</ele>
        <time>2018-12-27T14:48:20Z</time>
      </trkpt>
      <trkpt lat="36.564580" lon="-118.773440">
        <ele>1962.817</ele>
        <time>2018-12-27T14:48:40Z</time>
      </trkpt>
      <trkpt lat="36.564577" lon="-118.773443">
        <ele>1962.808</ele>
        <time>2018-12-27T14:49:00Z</time>
      </trkpt>
      <trkpt lat="36.564500" lon="-118.773520">
        <ele>1963.191</ele>
        <time>2018-12-27T14:49:20Z</time>
      </trkpt>
      <trkpt lat="36.564480" lon="-118.773550">
        <ele>1963.289</ele>
        <time>2018-12-27T14:49:40Z</time>
      </trkpt>
      <trkpt lat="36.564460" lon="-118.773570">
        <ele>1963.364</ele>
        <time>2018-12-27T14:50:00Z</time>
      </trkpt>
      <trkpt lat="36.564430" lon="-118.773620">
        <ele>1963.324</ele>
        <time>2018-12-27T14:50:20Z</time>
      </trkpt>
      <trkpt lat="36.564390" lon="-118.773660">
        <ele>1963.438</ele>
        <time>2018-12-27T14:50:40Z</time>
      </trkpt>
      <trkpt lat="36.564360" lon="-118.773710">
        <ele>1963.331</ele>
        <time>2018-12-27T14:51:00Z</time>
      </trkpt>
      <trkpt lat="36.564320" lon="-118.773760">
        <ele>1963.282</ele>
        <time>2018-12-27T14:51:20Z</time>
      </trkpt>
      <trkpt lat="36.564270" lon="-118.773850">
        <ele>1962.785</ele>
        <time>2018-12-27T14:51:40Z</time>
      </trkpt>
      <trkpt lat="36.564220" lon="-118.773950">
        <ele>1962.223</ele>
        <time>2018-12-27T14:52:00Z</time>
      </trkpt>
      <trkpt lat="36.564170" lon="-118.774050">
        <ele>1961.883</ele>
        <time>2018-12-27T14:52:20Z</time>
      </trkpt>
      <trkpt lat="36.564150" lon="-118.774100">
        <ele>1961.611</ele>
        <time>2018-12-27T14:52:40Z</time>
      </trkpt>
      <trkpt lat="36.564110" lon="-118.774170">
        <ele>1961.308</ele>
        <time>2018-12-27T14:53:00Z</time>
      </trkpt>
      <trkpt lat="36.564070" lon="-118.774230">
        <ele>1960.935</ele>
        <time>2018-12-27T14:53:20Z</time>
      </trkpt>
      <trkpt lat="36.564040" lon="-118.774280">
        <ele>1960.583</ele>
        <time>2018-12-27T14:53:40Z</time>
      </trkpt>
      <trkpt lat="36.564010" lon="-118.774310">
        <ele>1960.288</ele>
        <time>2018-12-27T14:54:00Z</time>
      </trkpt>
      <trkpt lat="36.563990" lon="-118.774340">
        <ele>1959.948</ele>
        <time>2018-12-27T14:54:20Z</time>
      </trkpt>
      <trkpt lat="36.563960" lon="-118.774370">
        <ele>1959.682</ele>
        <time>2018-12-27T14:54:40Z</time>
      </trkpt>
      <trkpt lat="36.563920" lon="-118.774400">
        <ele>1959.145</ele>
        <time>2018-12-27T14:55:00Z</time>
      </trkpt>
      <trkpt lat="36.563870" lon="-118.774430">
        <ele>1958.696</ele>
        <time>2018-12-27T14:55:20Z</time>
      </trkpt>
      <trkpt lat="36.563810" lon="-118.774460">
        <ele>1958.079</ele>
        <time>2018-12-27T14:55:40Z</time>
      </trkpt>
      <trkpt lat="36.563750" lon="-118.774500">
        <ele>1957.331</ele>
        <time>2018-12-27T14:56:00Z</time>
      </trkpt>
      <trkpt lat="36.563350" lon="-118.774650">
        <ele>1950.061</ele>
        <time>2018-12-27T14:56:20Z</time>
      </trkpt>
      <trkpt lat="36.563270" lon="-118.774680">
        <ele>1948.107</ele>
        <time>2018-12-27T14:56:40Z</time>
      </trkpt>
      <trkpt lat="36.563210" lon="-118.774710">
        <ele>1946.408</ele>
        <time>2018-12-27T14:57:00Z</time>
      </trkpt>
      <trkpt lat="36.563140" lon="-118.774730">
        <ele>1945.676</ele>
        <time>2018-12-27T14:57:20Z</time>
      </trkpt>
      <trkpt lat="36.563100" lon="-118.774740">
        <ele>1945.394</ele>
        <time>2018-12-27T14:57:40Z</time>
      </trkpt>
      <trkpt lat="36.563060" lon="-118.774740">
        <ele>1945.249</ele>
        <time>2018-12-27T14:58:00Z</time>
      </trkpt>
      <trkpt lat="36.563030" lon="-118.774750">
        <ele>1945.029</ele>
        <time>2018-12-27T14:58:20Z</time>
      </trkpt>
      <trkpt lat="36.562990" lon="-118.774750">
        <ele>1944.993</ele>
        <time>2018-12-27T14:58:40Z</time>
      </trkpt>
      <trkpt lat="36.562930" lon="-118.774740">
        <ele>1944.976</ele>
        <time>2018-12-27T14:59:00Z</time>
      </trkpt>
      <trkpt lat="36.562730" lon="-118.774730">
        <ele>1946.017</ele>
        <time>2018-12-27T14:59:20Z</time>
      </trkpt>
      <trkpt lat="36.562710" lon="-118.774740">
        <ele>1945.980</ele>
        <time>2018-12-27T14:59:40Z</time>
      </trkpt>
      <trkpt lat="36.562690" lon="-118.774740">
        <ele>1946.092</ele>
        <time>2018-12-27T15:00:00Z</time>
      </trkpt>
      <trkpt lat="36.562680" lon="-118.774740">
        <ele>1946.073</ele>
        <time>2018-12-27T15:00:20Z</time>
      </trkpt>
      <trkpt lat="36.562660" lon="-118.774750">
        <ele>1945.920</ele>
        <time>2018-12-27T15:00:40Z</time>
      </trkpt>
      <trkpt lat="36.562640" lon="-118.774760">
        <ele>1945.908</ele>
        <time>2018-12-27T15:01:00Z</time>
      </trkpt>
      <trkpt lat="36.562620" lon="-118.774780">
        <ele>1945.772</ele>
        <time>2018-12-27T15:01:20Z</time>
      </trkpt>
      <trkpt lat="36.562590" lon="-118.774810">
        <ele>1945.540</ele>
        <time>2018-12-27T15:01:40Z</time>
      </trkpt>
      <trkpt lat="36.562560" lon="-118.774850">
        <ele>1945.115</ele>
        <time>2018-12-27T15:02:00Z</time>
      </trkpt>
      <trkpt lat="36.562520" lon="-118.774900">
        <ele>1944.585</ele>
        <time>2018-12-27T15:02:20Z</time>
      </trkpt>
      <trkpt lat="36.562480" lon="-118.774960">
        <ele>1943.779</ele>
        <time>2018-12-27T15:02:40Z</time>
      </trkpt>
      <trkpt lat="36.562070" lon="-118.775560">
        <ele>1931.372</ele>
        <time>2018-12-27T15:03:00Z</time>
      </trkpt>
      <trkpt lat="36.562010" lon="-118.775640">
        <ele>1930.143</ele>
        <time>2018-12-27T15:03:20Z</time>
      </trkpt>
      <trkpt lat="36.561980" lon="-118.775680">
        <ele>1929.566</ele>
        <time>2018-12-27T15:03:40Z</time>
      </trkpt>
      <trkpt lat="36.561950" lon="-118.775710">
        <ele>1929.111</ele>
        <time>2018-12-27T15:04:00Z</time>
      </trkpt>
      <trkpt lat="36.561920" lon="-118.775730">
        <ele>1928.821</ele>
        <time>2018-12-27T15:04:20Z</time>
      </trkpt>
      <trkpt lat="36.561890" lon="-118.775750">
        <ele>1928.603</ele>
        <time>2018-12-27T15:04:40Z</time>
      </trkpt>
      <trkpt lat="36.561870" lon="-118.775760">
        <ele>1928.608</ele>
        <time>2018-12-27T15:05:00Z</time>
      </trkpt>
      <trkpt lat="36.561830" lon="-118.775770">
        <ele>1929.014</ele>
        <time>2018-12-27T15:05:20Z</time>
      </trkpt>
      <trkpt lat="36.561800" lon="-118.775770">
        <ele>1929.442</ele>
        <time>2018-12-27T15:05:40Z</time>
      </trkpt>
      <trkpt lat="36.561770" lon="-118.775780">
        <ele>1929.327</ele>
        <time>2018-12-27T15:06:00Z</time>
      </trkpt>
      <trkpt lat="36.561690" lon="-118.775780">
        <ele>1929.767</ele>
        <time>2018-12-27T15:06:20Z</time>
      </trkpt>
      <trkpt lat="36.561630" lon="-118.775790">
        <ele>1929.741</ele>
        <time>2018-12-27T15:06:40Z</time>
      </trkpt>
      <trkpt lat="36.561570" lon="-118.775790">
        <ele>1930.094</ele>
        <time>2018-12-27T15:07:00Z</time>
      </trkpt>
      <trkpt lat="36.561500" lon="-118.775800">
        <ele>1929.655</ele>
        <time>2018-12-27T15:07:20Z</time>
      </trkpt>
      <trkpt lat="36.561430" lon="-118.775820">
        <ele>1928.048</ele>
        <time>2018-12-27T15:07:40Z</time>
      </trkpt>
      <trkpt lat="36.561350" lon="-118.775840">
        <ele>1926.345</ele>
        <time>2018-12-27T15:08:00Z</time>
      </trkpt>
      <trkpt lat="36.561300" lon="-118.775860">
        <ele>1925.147</ele>
        <time>2018-12-27T15:08:20Z</time>
      </trkpt>
      <trkpt lat="36.561240" lon="-118.775880">
        <ele>1923.911</ele>
        <time>2018-12-27T15:08:40Z</time>
      </trkpt>
      <trkpt lat="36.561020" lon="-118.775980">
        <ele>1919.808</ele>
        <time>2018-12-27T15:09:00Z</time>
      </trkpt>
      <trkpt lat="36.560940" lon="-118.776010">
        <ele>1918.367</ele>
        <time>2018-12-27T15:09:20Z</time>
      </trkpt>
      <trkpt lat="36.560890" lon="-118.776030">
        <ele>1917.425</ele>
        <time>2018-12-27T15:09:40Z</time>
      </trkpt>
      <trkpt lat="36.560840" lon="-118.776050">
        <ele>1916.570</ele>
        <time>2018-12-27T15:10:00Z</time>
      </trkpt>
      <trkpt lat="36.560810" lon="-118.776050">
        <ele>1916.420</ele>
        <time>2018-12-27T15:10:20Z</time>
      </trkpt>
      <trkpt lat="36.560770" lon="-118.776050">
        <ele>1916.324</ele>
        <time>2018-12-27T15:10:40Z</time>
      </trkpt>
      <trkpt lat="36.560510" lon="-118.776030">
        <ele>1916.927</ele>
        <time>2018-12-27T15:11:00Z</time>
      </trkpt>
      <trkpt lat="36.560270" lon="-118.776020">
        <ele>1916.378</ele>
        <time>2018-12-27T15:11:20Z</time>
      </trkpt>
      <trkpt lat="36.560080" lon="-118.776010">
        <ele>1914.381</ele>
        <time>2018-12-27T15:11:40Z</time>
      </trkpt>
      <trkpt lat="36.560010" lon="-118.776010">
        <ele>1912.581</ele>
        <time>2018-12-27T15:12:00Z</time>
      </trkpt>
      <trkpt lat="36.559970" lon="-118.776000">
        <ele>1911.861</ele>
        <time>2018-12-27T15:12:20Z</time>
      </trkpt>
      <trkpt lat="36.559950" lon="-118.776000">
        <ele>1911.217</ele>
        <time>2018-12-27T15:12:40Z</time>
      </trkpt>
      <trkpt lat="36.559910" lon="-118.775990">
        <ele>1910.508</ele>
        <time>2018-12-27T15:13:00Z</time>
      </trkpt>
      <trkpt lat="36.559870" lon="-118.775970">
        <ele>1910.161</ele>
        <time>2018-12-27T15:13:20Z</time>
      </trkpt>
      <trkpt lat="36.559830" lon="-118.775950">
        <ele>1910.069</ele>
        <time>2018-12-27T15:13:40Z</time>
      </trkpt>
      <trkpt lat="36.559800" lon="-118.775930">
        <ele>1910.174</ele>
        <time>2018-12-27T15:14:00Z</time>
      </trkpt>
      <trkpt lat="36.559770" lon="-118.775920">
        <ele>1909.994</ele>
        <time>2018-12-27T15:14:20Z</time>
      </trkpt>
      <trkpt lat="36.559710" lon="-118.775870">
        <ele>1910.348</ele>
        <time>2018-12-27T15:14:40Z</time>
      </trkpt>
      <trkpt lat="36.559660" lon="-118.775830">
        <ele>1910.671</ele>
        <time>2018-12-27T15:15:00Z</time>
      </trkpt>
      <trkpt lat="36.559550" lon="-118.775740">
        <ele>1910.532</ele>
        <time>2018-12-27T15:15:20Z</time>
      </trkpt>
      <trkpt lat="36.559400" lon="-118.775570">
        <ele>1910.575</ele>
        <time>2018-12-27T15:15:40Z</time>
      </trkpt>
      <trkpt lat="36.559370" lon="-118.775550">
        <ele>1910.078</ele>
        <time>2018-12-27T15:16:00Z</time>
      </trkpt>
      <trkpt lat="36.559350" lon="-118.775540">
        <ele>1909.533</ele>
        <time>2018-12-27T15:16:20Z</time>
      </trkpt>
      <trkpt lat="36.559330" lon="-118.775520">
        <ele>1909.326</ele>
        <time>2018-12-27T15:16:40Z</time>
      </trkpt>
      <trkpt lat="36.559310" lon="-118.775510">
        <ele>1908.908</ele>
        <time>2018-12-27T15:17:00Z</time>
      </trkpt>
      <trkpt lat="36.559290" lon="-118.775500">
        <ele>1908.480</ele>
        <time>2018-12-27T15:17:20Z</time>
      </trkpt>
      <trkpt lat="36.559260" lon="-118.775490">
        <ele>1907.568</ele>
        <time>2018-12-27T15:17:40Z</time>
      </trkpt>
      <trkpt lat="36.559220" lon="-118.775480">
        <ele>1906.223</ele>
        <time>2018-12-27T15:18:00Z</time>
      </trkpt>
      <trkpt lat="36.559170" lon="-118.775460">
        <ele>1905.013</ele>
        <time>2018-12-27T15:18:20Z</time>
      </trkpt>
      <trkpt lat="36.559100" lon="-118.775450">
        <ele>1902.897</ele>
        <time>2018-12-27T15:18:40Z</time>
      </trkpt>
      <trkpt lat="36.559060" lon="-118.775440">
        <ele>1901.830</ele>
        <time>2018-12-27T15:19:00Z</time>
      </trkpt>
      <trkpt lat="36.559020" lon="-118.775430">
        <ele>1900.941</ele>
        <time>2018-12-27T15:19:20Z</time>
      </trkpt>
      <trkpt lat="36.558980" lon="-118.775420">
        <ele>1899.984</ele>
        <time>2018-12-27T15:19:40Z</time>
      </trkpt>
      <trkpt lat="36.558930" lon="-118.775400">
        <ele>1898.778</ele>
        <time>2018-12-27T15:20:00Z</time>
      </trkpt>
      <trkpt lat="36.558880" lon="-118.775370">
        <ele>1897.933</ele>
        <time>2018-12-27T15:20:20Z</time>
      </trkpt>
      <trkpt lat="36.558840" lon="-118.775350">
        <ele>1897.226</ele>
        <time>2018-12-27T15:20:40Z</time>
      </trkpt>
      <trkpt lat="36.558720" lon="-118.775280">
        <ele>1896.108</ele>
        <time>2018-12-27T15:21:00Z</time>
      </trkpt>
      <trkpt lat="36.558690" lon="-118.775260">
        <ele>1896.360</ele>
        <time>2018-12-27T15:21:20Z</time>
      </trkpt>
      <trkpt lat="36.558650" lon="-118.775250">
        <ele>1895.918</ele>
        <time>2018-12-27T15:21:40Z</time>
      </trkpt>
      <trkpt lat="36.558620" lon="-118.775240">
        <ele>1895.833</ele>
        <time>2018-12-27T15:22:00Z</time>
      </trkpt>
      <trkpt lat="36.558580" lon="-118.775240">
        <ele>1895.133</ele>
        <time>2018-12-27T15:22:20Z</time>
      </trkpt>
      <trkpt lat="36.558530" lon="-118.775230">
        <ele>1894.787</ele>
        <time>2018-12-27T15:22:40Z</time>
      </trkpt>
      <trkpt lat="36.558470" lon="-118.775220">
        <ele>1894.180</ele>
        <time>2018-12-27T15:23:00Z</time>
      </trkpt>
      <trkpt lat="36.557610" lon="-118.775200">
        <ele>1890.161</ele>
        <time>2018-12-27T15:23:20Z</time>
      </trkpt>
      <trkpt lat="36.557580" lon="-118.775200">
        <ele>1889.934</ele>
        <time>2018-12-27T15:23:40Z</time>
      </trkpt>
      <trkpt lat="36.557530" lon="-118.775190">
        <ele>1889.931</ele>
        <time>2018-12-27T15:24:00Z</time>
      </trkpt>
      <trkpt lat="36.557470" lon="-118.775180">
        <ele>1889.961</ele>
        <time>2018-12-27T15:24:20Z</time>
      </trkpt>
      <trkpt lat="36.557390" lon="-118.775170">
        <ele>1889.707</ele>
        <time>2018-12-27T15:24:40Z</time>
      </trkpt>
      <trkpt lat="36.557330" lon="-118.775150">
        <ele>1889.508</ele>
        <time>2018-12-27T15:25:00Z</time>
      </trkpt>
      <trkpt lat="36.557260" lon="-118.775130">
        <ele>1888.176</ele>
        <time>2018-12-27T15:25:20Z</time>
      </trkpt>
      <trkpt lat="36.557030" lon="-118.775040">
        <ele>1884.874</ele>
        <time>2018-12-27T15:25:40Z</time>
      </trkpt>
      <trkpt lat="36.556990" lon="-118.775020">
        <ele>1885.099</ele>
        <time>2018-12-27T15:26:00Z</time>
      </trkpt>
      <trkpt lat="36.556950" lon="-118.775020">
        <ele>1884.629</ele>
        <time>2018-12-27T15:26:20Z</time>
      </trkpt>
      <trkpt lat="36.556910" lon="-118.775010">
        <ele>1884.583</ele>
        <time>2018-12-27T15:26:40Z</time>
      </trkpt>
      <trkpt lat="36.556860" lon="-118.775010">
        <ele>1884.156</ele>
        <time>2018-12-27T15:27:00Z</time>
      </trkpt>
      <trkpt lat="36.556820" lon="-118.775010">
        <ele>1883.737</ele>
        <time>2018-12-27T15:27:20Z</time>
      </trkpt>
      <trkpt lat="36.556730" lon="-118.775010">
        <ele>1883.470</ele>
        <time>2018-12-27T15:27:40Z</time>
      </trkpt>
      <trkpt lat="36.556680" lon="-118.775020">
        <ele>1882.968</ele>
        <time>2018-12-27T15:28:00Z</time>
      </trkpt>
      <trkpt lat="36.556640" lon="-118.775030">
        <ele>1882.542</ele>
        <time>2018-12-27T15:28:20Z</time>
      </trkpt>
      <trkpt lat="36.556570" lon="-118.775050">
        <ele>1881.726</ele>
        <time>2018-12-27T15:28:40Z</time>
      </trkpt>
      <trkpt lat="36.556510" lon="-118.775080">
        <ele>1880.508</ele>
        <time>2018-12-27T15:29:00Z</time>
      </trkpt>
      <trkpt lat="36.556070" lon="-118.775230">
        <ele>1872.849</ele>
        <time>2018-12-27T15:29:20Z</time>
      </trkpt>
      <trkpt lat="36.556020" lon="-118.775250">
        <ele>1871.717</ele>
        <time>2018-12-27T15:29:40Z</time>
      </trkpt>
      <trkpt lat="36.555940" lon="-118.775270">
        <ele>1870.632</ele>
        <time>2018-12-27T15:30:00Z</time>
      </trkpt>
      <trkpt lat="36.555890" lon="-118.775270">
        <ele>1870.352</ele>
        <time>2018-12-27T15:30:20Z</time>
      </trkpt>
      <trkpt lat="36.555830" lon="-118.775270">
        <ele>1869.996</ele>
        <time>2018-12-27T15:30:40Z</time>
      </trkpt>
      <trkpt lat="36.555750" lon="-118.775280">
        <ele>1869.269</ele>
        <time>2018-12-27T15:31:00Z</time>
      </trkpt>
      <trkpt lat="36.555660" lon="-118.775270">
        <ele>1868.860</ele>
        <time>2018-12-27T15:31:20Z</time>
      </trkpt>
      <trkpt lat="36.555590" lon="-118.775260">
        <ele>1868.583</ele>
        <time>2018-12-27T15:31:40Z</time>
      </trkpt>
      <trkpt lat="36.555520" lon="-118.775250">
        <ele>1868.342</ele>
        <time>2018-12-27T15:32:00Z</time>
      </trkpt>
      <trkpt lat="36.555440" lon="-118.775220">
        <ele>1868.722</ele>
        <time>2018-12-27T15:32:20Z</time>
      </trkpt>
      <trkpt lat="36.555360" lon="-118.775190">
        <ele>1869.014</ele>
        <time>2018-12-27T15:32:40Z</time>
      </trkpt>
      <trkpt lat="36.555290" lon="-118.775160">
        <ele>1869.308</ele>
        <time>2018-12-27T15:33:00Z</time>
      </trkpt>
      <trkpt lat="36.555210" lon="-118.775130">
        <ele>1869.657</ele>
        <time>2018-12-27T15:33:20Z</time>
      </trkpt>
      <trkpt lat="36.555160" lon="-118.775100">
        <ele>1869.935</ele>
        <time>2018-12-27T15:33:40Z</time>
      </trkpt>
      <trkpt lat="36.555100" lon="-118.775070">
        <ele>1869.520</ele>
        <time>2018-12-27T15:34:00Z</time>
      </trkpt>
      <trkpt lat="36.554690" lon="-118.774780">
        <ele>1864.110</ele>
        <time>2018-12-27T15:34:20Z</time>
      </trkpt>
      <trkpt lat="36.554270" lon="-118.774470">
        <ele>1862.224</ele>
        <time>2018-12-27T15:34:40Z</time>
      </trkpt>
      <trkpt lat="36.554190" lon="-118.774410">
        <ele>1862.197</ele>
        <time>2018-12-27T15:35:00Z</time>
      </trkpt>
      <trkpt lat="36.554090" lon="-118.774350">
        <ele>1861.568</ele>
        <time>2018-12-27T15:35:20Z</time>
      </trkpt>
      <trkpt lat="36.554040" lon="-118.774320">
        <ele>1861.171</ele>
        <time>2018-12-27T15:35:40Z</time>
      </trkpt>
      <trkpt lat="36.553800" lon="-118.774180">
        <ele>1858.715</ele>
        <time>2018-12-27T15:36:00Z</time>
      </trkpt>
      <trkpt lat="36.553740" lon="-118.774150">
        <ele>1857.865</ele>
        <time>2018-12-27T15:36:20Z</time>
      </trkpt>
      <trkpt lat="36.553700" lon="-118.774120">
        <ele>1857.311</ele>
        <time>2018-12-27T15:36:40Z</time>
      </trkpt>
      <trkpt lat="36.553670" lon="-118.774090">
        <ele>1857.208</ele>
        <time>2018-12-27T15:37:00Z</time>
      </trkpt>
      <trkpt lat="36.553650" lon="-118.774070">
        <ele>1857.184</ele>
        <time>2018-12-27T15:37:20Z</time>
      </trkpt>
      <trkpt lat="36.553620" lon="-118.774040">
        <ele>1856.952</ele>
        <time>2018-12-27T15:37:40Z</time>
      </trkpt>
      <trkpt lat="36.553570" lon="-118.773960">
        <ele>1857.357</ele>
        <time>2018-12-27T15:38:00Z</time>
      </trkpt>
      <trkpt lat="36.553540" lon="-118.773920">
        <ele>1857.357</ele>
        <time>2018-12-27T15:38:20Z</time>
      </trkpt>
      <trkpt lat="36.553520" lon="-118.773900">
        <ele>1857.171</ele>
        <time>2018-12-27T15:38:40Z</time>
      </trkpt>
      <trkpt lat="36.553510" lon="-118.773890">
        <ele>1857.044</ele>
        <time>2018-12-27T15:39:00Z</time>
      </trkpt>
      <trkpt lat="36.553490" lon="-118.773880">
        <ele>1856.655</ele>
        <time>2018-12-27T15:39:20Z</time>
      </trkpt>
      <trkpt lat="36.553470" lon="-118.773860">
        <ele>1856.478</ele>
        <time>2018-12-27T15:39:40Z</time>
      </trkpt>
      <trkpt lat="36.553450" lon="-118.773850">
        <ele>1856.968</ele>
        <time>2018-12-27T15:40:00Z</time>
      </trkpt>
      <trkpt lat="36.553440" lon="-118.773850">
        <ele>1857.042</ele>
        <time>2018-12-27T15:40:20Z</time>
      </trkpt>
      <trkpt lat="36.553410" lon="-118.773840">
        <ele>1857.626</ele>
        <time>2018-12-27T15:40:40Z</time>
      </trkpt>
      <trkpt lat="36.553370" lon="-118.773840">
        <ele>1858.108</ele>
        <time>2018-12-27T15:41:00Z</time>
      </trkpt>
      <trkpt lat="36.553350" lon="-118.773850">
        <ele>1858.269</ele>
        <time>2018-12-27T15:41:20Z</time>
      </trkpt>
      <trkpt lat="36.553330" lon="-118.773850">
        <ele>1858.577</ele>
        <time>2018-12-27T15:41:40Z</time>
      </trkpt>
      <trkpt lat="36.553310" lon="-118.773860">
        <ele>1858.692</ele>
        <time>2018-12-27T15:42:00Z</time>
      </trkpt>
      <trkpt lat="36.553300" lon="-118.773870">
        <ele>1858.662</ele>
        <time>2018-12-27T15:42:20Z</time>
      </trkpt>
      <trkpt lat="36.553280" lon="-118.773890">
        <ele>1858.726</ele>
        <time>2018-12-27T15:42:40Z</time>
      </trkpt>
      <trkpt lat="36.553260" lon="-118.773920">
        <ele>1858.719</ele>
        <time>2018-12-27T15:43:00Z</time>
      </trkpt>
      <trkpt lat="36.553250" lon="-118.773940">
        <ele>1858.690</ele>
        <time>2018-12-27T15:43:20Z</time>
      </trkpt>
      <trkpt lat="36.553240" lon="-118.773970">
        <ele>1858.563</ele>
        <time>2018-12-27T15:43:40Z</time>
      </trkpt>
      <trkpt lat="36.553220" lon="-118.774030">
        <ele>1858.372</ele>
        <time>2018-12-27T15:44:00Z</time>
      </trkpt>
      <trkpt lat="36.553190" lon="-118.774150">
        <ele>1858.213</ele>
        <time>2018-12-27T15:44:20Z</time>
      </trkpt>
      <trkpt lat="36.553140" lon="-118.774310">
        <ele>1858.414</ele>
        <time>2018-12-27T15:44:40Z</time>
      </trkpt>
      <trkpt lat="36.553110" lon="-118.774450">
        <ele>1857.708</ele>
        <time>2018-12-27T15:45:00Z</time>
      </trkpt>
      <trkpt lat="36.553100" lon="-118.774550">
        <ele>1856.990</ele>
        <time>2018-12-27T15:45:20Z</time>
      </trkpt>
      <trkpt lat="36.553090" lon="-118.774590">
        <ele>1856.838</ele>
        <time>2018-12-27T15:45:40Z</time>
      </trkpt>
      <trkpt lat="36.553090" lon="-118.774630">
        <ele>1856.533</ele>
        <time>2018-12-27T15:46:00Z</time>
      </trkpt>
      <trkpt lat="36.553090" lon="-118.774680">
        <ele>1856.153</ele>
        <time>2018-12-27T15:46:20Z</time>
      </trkpt>
      <trkpt lat="36.553110" lon="-118.774730">
        <ele>1855.257</ele>
        <time>2018-12-27T15:46:40Z</time>
      </trkpt>
      <trkpt lat="36.553120" lon="-118.774780">
        <ele>1854.510</ele>
        <time>2018-12-27T15:47:00Z</time>
      </trkpt>
      <trkpt lat="36.553150" lon="-118.774820">
        <ele>1853.261</ele>
        <time>2018-12-27T15:47:20Z</time>
      </trkpt>
      <trkpt lat="36.553190" lon="-118.774890">
        <ele>1851.484</ele>
        <time>2018-12-27T15:47:40Z</time>
      </trkpt>
      <trkpt lat="36.553240" lon="-118.774980">
        <ele>1848.848</ele>
        <time>2018-12-27T15:48:00Z</time>
      </trkpt>
      <trkpt lat="36.553270" lon="-118.775030">
        <ele>1847.361</ele>
        <time>2018-12-27T15:48:20Z</time>
      </trkpt>
      <trkpt lat="36.553290" lon="-118.775090">
        <ele>1846.217</ele>
        <time>2018-12-27T15:48:40Z</time>
      </trkpt>
      <trkpt lat="36.553310" lon="-118.775130">
        <ele>1845.208</ele>
        <time>2018-12-27T15:49:00Z</time>
      </trkpt>
      <trkpt lat="36.553320" lon="-118.775170">
        <ele>1844.747</ele>
        <time>2018-12-27T15:49:20Z</time>
      </trkpt>
      <trkpt lat="36.553330" lon="-118.775220">
        <ele>1844.255</ele>
        <time>2018-12-27T15:49:40Z</time>
      </trkpt>
      <trkpt lat="36.553340" lon="-118.775270">
        <ele>1843.660</ele>
        <time>2018-12-27T15:50:00Z</time>
      </trkpt>
      <trkpt lat="36.553350" lon="-118.775320">
        <ele>1843.110</ele>
        <time>2018-12-27T15:50:20Z</time>
      </trkpt>
      <trkpt lat="36.553350" lon="-118.775380">
        <ele>1842.984</ele>
        <time>2018-12-27T15:50:40Z</time>
      </trkpt>
      <trkpt lat="36.553340" lon="-118.775470">
        <ele>1842.487</ele>
        <time>2018-12-27T15:51:00Z</time>
      </trkpt>
      <trkpt lat="36.553330" lon="-118.775540">
        <ele>1841.748</ele>
        <time>2018-12-27T15:51:20Z</time>
      </trkpt>
      <trkpt lat="36.553310" lon="-118.775630">
        <ele>1841.131</ele>
        <time>2018-12-27T15:51:40Z</time>
      </trkpt>
      <trkpt lat="36.553280" lon="-118.775730">
        <ele>1840.483</ele>
        <time>2018-12-27T15:52:00Z</time>
      </trkpt>
      <trkpt lat="36.553260" lon="-118.775790">
        <ele>1839.725</ele>
        <time>2018-12-27T15:52:20Z</time>
      </trkpt>
      <trkpt lat="36.553230" lon="-118.775900">
        <ele>1837.917</ele>
        <time>2018-12-27T15:52:40Z</time>
      </trkpt>
      <trkpt lat="36.553200" lon="-118.776020">
        <ele>1836.308</ele>
        <time>2018-12-27T15:53:00Z</time>
      </trkpt>
      <trkpt lat="36.553190" lon="-118.776110">
        <ele>1835.541</ele>
        <time>2018-12-27T15:53:20Z</time>
      </trkpt>
      <trkpt lat="36.553170" lon="-118.776220">
        <ele>1835.059</ele>
        <time>2018-12-27T15:53:40Z</time>
      </trkpt>
      <trkpt lat="36.553150" lon="-118.776330">
        <ele>1834.814</ele>
        <time>2018-12-27T15:54:00Z</time>
      </trkpt>
      <trkpt lat="36.553130" lon="-118.776510">
        <ele>1833.944</ele>
        <time>2018-12-27T15:54:20Z</time>
      </trkpt>
      <trkpt lat="36.553120" lon="-118.776590">
        <ele>1834.178</ele>
        <time>2018-12-27T15:54:40Z</time>
      </trkpt>
      <trkpt lat="36.553120" lon="-118.776650">
        <ele>1833.981</ele>
        <time>2018-12-27T15:55:00Z</time>
      </trkpt>
      <trkpt lat="36.553130" lon="-118.776710">
        <ele>1833.492</ele>
        <time>2018-12-27T15:55:20Z</time>
      </trkpt>
      <trkpt lat="36.553130" lon="-118.776770">
        <ele>1833.365</ele>
        <time>2018-12-27T15:55:40Z</time>
      </trkpt>
      <trkpt lat="36.553140" lon="-118.776810">
        <ele>1832.759</ele>
        <time>2018-12-27T15:56:00Z</time>
      </trkpt>
      <trkpt lat="36.553150" lon="-118.776860">
        <ele>1832.003</ele>
        <time>2018-12-27T15:56:20Z</time>
      </trkpt>
      <trkpt lat="36.553310" lon="-118.777270">
        <ele>1824.823</ele>
        <time>2018-12-27T15:56:40Z</time>
      </trkpt>
      <trkpt lat="36.553320" lon="-118.777330">
        <ele>1824.608</ele>
        <time>2018-12-27T15:57:00Z</time>
      </trkpt>
      <trkpt lat="36.553340" lon="-118.777380">
        <ele>1823.938</ele>
        <time>2018-12-27T15:57:20Z</time>
      </trkpt>
      <trkpt lat="36.553340" lon="-118.777420">
        <ele>1823.846</ele>
        <time>2018-12-27T15:57:40Z</time>
      </trkpt>
      <trkpt lat="36.553340" lon="-118.777460">
        <ele>1823.851</ele>
        <time>2018-12-27T15:58:00Z</time>
      </trkpt>
      <trkpt lat="36.553340" lon="-118.777520">
        <ele>1823.631</ele>
        <time>2018-12-27T15:58:20Z</time>
      </trkpt>
      <trkpt lat="36.553340" lon="-118.777570">
        <ele>1823.515</ele>
        <time>2018-12-27T15:58:40Z</time>
      </trkpt>
      <trkpt lat="36.553330" lon="-118.777660">
        <ele>1823.698</ele>
        <time>2018-12-27T15:59:00Z</time>
      </trkpt>
      <trkpt lat="36.553310" lon="-118.777790">
        <ele>1823.729</ele>
        <time>2018-12-27T15:59:20Z</time>
      </trkpt>
      <trkpt lat="36.553310" lon="-118.777890">
        <ele>1823.242</ele>
        <time>2018-12-27T15:59:40Z</time>
      </trkpt>
      <trkpt lat="36.553310" lon="-118.778000">
        <ele>1823.542</ele>
        <time>2018-12-27T16:00:00Z</time>
      </trkpt>
      <trkpt lat="36.553320" lon="-118.778080">
        <ele>1823.522</ele>
        <time>2018-12-27T16:00:20Z</time>
      </trkpt>
      <trkpt lat="36.553420" lon="-118.778420">
        <ele>1818.614</ele>
        <time>2018-12-27T16:00:40Z</time>
      </trkpt>
      <trkpt lat="36.553430" lon="-118.778460">
        <ele>1817.708</ele>
        <time>2018-12-27T16:01:00Z</time>
      </trkpt>
      <trkpt lat="36.553430" lon="-118.778490">
        <ele>1817.687</ele>
        <time>2018-12-27T16:01:20Z</time>
      </trkpt>
      <trkpt lat="36.553440" lon="-118.778530">
        <ele>1816.995</ele>
        <time>2018-12-27T16:01:40Z</time>
      </trkpt>
      <trkpt lat="36.553440" lon="-118.778550">
        <ele>1816.890</ele>
        <time>2018-12-27T16:02:00Z</time>
      </trkpt>
      <trkpt lat="36.553440" lon="-118.778580">
        <ele>1816.740</ele>
        <time>2018-12-27T16:02:20Z</time>
      </trkpt>
      <trkpt lat="36.553440" lon="-118.778600">
        <ele>1816.774</ele>
        <time>2018-12-27T16:02:40Z</time>
      </trkpt>
      <trkpt lat="36.553440" lon="-118.778630">
        <ele>1816.627</ele>
        <time>2018-12-27T16:03:00Z</time>
      </trkpt>
      <trkpt lat="36.553430" lon="-118.778760">
        <ele>1817.078</ele>
        <time>2018-12-27T16:03:20Z</time>
      </trkpt>
      <trkpt lat="36.553420" lon="-118.778800">
        <ele>1817.891</ele>
        <time>2018-12-27T16:03:40Z</time>
      </trkpt>
      <trkpt lat="36.553420" lon="-118.778830">
        <ele>1817.826</ele>
        <time>2018-12-27T16:04:00Z</time>
      </trkpt>
      <trkpt lat="36.553420" lon="-118.778860">
        <ele>1817.947</ele>
        <time>2018-12-27T16:04:20Z</time>
      </trkpt>
      <trkpt lat="36.553420" lon="-118.778880">
        <ele>1817.911</ele>
        <time>2018-12-27T16:04:40Z</time>
      </trkpt>
      <trkpt lat="36.553420" lon="-118.778940">
        <ele>1817.908</ele>
        <time>2018-12-27T16:05:00Z</time>
      </trkpt>
      <trkpt lat="36.553430" lon="-118.778970">
        <ele>1817.215</ele>
        <time>2018-12-27T16:05:20Z</time>
      </trkpt>
      <trkpt lat="36.553430" lon="-118.779000">
        <ele>1817.263</ele>
        <time>2018-12-27T16:05:40Z</time>
      </trkpt>
      <trkpt lat="36.553430" lon="-118.779020">
        <ele>1817.278</ele>
        <time>2018-12-27T16:06:00Z</time>
      </trkpt>
      <trkpt lat="36.553440" lon="-118.779050">
        <ele>1816.598</ele>
        <time>2018-12-27T16:06:20Z</time>
      </trkpt>
      <trkpt lat="36.553470" lon="-118.779130">
        <ele>1814.322</ele>
        <time>2018-12-27T16:06:40Z</time>
      </trkpt>
      <trkpt lat="36.553530" lon="-118.779330">
        <ele>1813.015</ele>
        <time>2018-12-27T16:07:00Z</time>
      </trkpt>
      <trkpt lat="36.553550" lon="-118.779380">
        <ele>1812.856</ele>
        <time>2018-12-27T16:07:20Z</time>
      </trkpt>
      <trkpt lat="36.553560" lon="-118.779420">
        <ele>1812.889</ele>
        <time>2018-12-27T16:07:40Z</time>
      </trkpt>
      <trkpt lat="36.553560" lon="-118.779470">
        <ele>1813.356</ele>
        <time>2018-12-27T16:08:00Z</time>
      </trkpt>
      <trkpt lat="36.553570" lon="-118.779510">
        <ele>1813.359</ele>
        <time>2018-12-27T16:08:20Z</time>
      </trkpt>
      <trkpt lat="36.553590" lon="-118.779710">
        <ele>1813.814</ele>
        <time>2018-12-27T16:08:40Z</time>
      </trkpt>
      <trkpt lat="36.553630" lon="-118.780000">
        <ele>1813.208</ele>
        <time>2018-12-27T16:09:00Z</time>
      </trkpt>
      <trkpt lat="36.553650" lon="-118.780090">
        <ele>1812.778</ele>
        <time>2018-12-27T16:09:20Z</time>
      </trkpt>
      <trkpt lat="36.553660" lon="-118.780150">
        <ele>1812.346</ele>
        <time>2018-12-27T16:09:40Z</time>
      </trkpt>
      <trkpt lat="36.553690" lon="-118.780240">
        <ele>1810.741</ele>
        <time>2018-12-27T16:10:00Z</time>
      </trkpt>
      <trkpt lat="36.553710" lon="-118.780330">
        <ele>1809.411</ele>
        <time>2018-12-27T16:10:20Z</time>
      </trkpt>
      <trkpt lat="36.553730" lon="-118.780400">
        <ele>1808.265</ele>
        <time>2018-12-27T16:10:40Z</time>
      </trkpt>
      <trkpt lat="36.553740" lon="-118.780440">
        <ele>1807.388</ele>
        <time>2018-12-27T16:11:00Z</time>
      </trkpt>
      <trkpt lat="36.553750" lon="-118.780490">
        <ele>1806.089</ele>
        <time>2018-12-27T16:11:20Z</time>
      </trkpt>
      <trkpt lat="36.553760" lon="-118.780530">
        <ele>1805.112</ele>
        <time>2018-12-27T16:11:40Z</time>
      </trkpt>
      <trkpt lat="36.553760" lon="-118.780570">
        <ele>1804.516</ele>
        <time>2018-12-27T16:12:00Z</time>
      </trkpt>
      <trkpt lat="36.553760" lon="-118.780620">
        <ele>1803.876</ele>
        <time>2018-12-27T16:12:20Z</time>
      </trkpt>
      <trkpt lat="36.553770" lon="-118.780770">
        <ele>1802.513</ele>
        <time>2018-12-27T16:12:40Z</time>
      </trkpt>
      <trkpt lat="36.553780" lon="-118.780860">
        <ele>1802.108</ele>
        <time>2018-12-27T16:13:00Z</time>
      </trkpt>
      <trkpt lat="36.553790" lon="-118.780950">
        <ele>1801.644</ele>
        <time>2018-12-27T16:13:20Z</time>
      </trkpt>
      <trkpt lat="36.553800" lon="-118.781060">
        <ele>1801.852</ele>
        <time>2018-12-27T16:13:40Z</time>
      </trkpt>
      <trkpt lat="36.553830" lon="-118.781170">
        <ele>1801.317</ele>
        <time>2018-12-27T16:14:00Z</time>
      </trkpt>
      <trkpt lat="36.553860" lon="-118.781270">
        <ele>1800.647</ele>
        <time>2018-12-27T16:14:20Z</time>
      </trkpt>
      <trkpt lat="36.553880" lon="-118.781350">
        <ele>1800.151</ele>
        <time>2018-12-27T16:14:40Z</time>
      </trkpt>
      <trkpt lat="36.553900" lon="-118.781420">
        <ele>1799.434</ele>
        <time>2018-12-27T16:15:00Z</time>
      </trkpt>
      <trkpt lat="36.553930" lon="-118.781490">
        <ele>1798.135</ele>
        <time>2018-12-27T16:15:20Z</time>
      </trkpt>
      <trkpt lat="36.553950" lon="-118.781550">
        <ele>1797.258</ele>
        <time>2018-12-27T16:15:40Z</time>
      </trkpt>
      <trkpt lat="36.554020" lon="-118.781690">
        <ele>1793.744</ele>
        <time>2018-12-27T16:16:00Z</time>
      </trkpt>
      <trkpt lat="36.554070" lon="-118.781800">
        <ele>1792.505</ele>
        <time>2018-12-27T16:16:20Z</time>
      </trkpt>
      <trkpt lat="36.554090" lon="-118.781860">
        <ele>1792.615</ele>
        <time>2018-12-27T16:16:40Z</time>
      </trkpt>
      <trkpt lat="36.554110" lon="-118.781910">
        <ele>1792.508</ele>
        <time>2018-12-27T16:17:00Z</time>
      </trkpt>
      <trkpt lat="36.554130" lon="-118.781960">
        <ele>1792.357</ele>
        <time>2018-12-27T16:17:20Z</time>
      </trkpt>
      <trkpt lat="36.554130" lon="-118.781990">
        <ele>1792.635</ele>
        <time>2018-12-27T16:17:40Z</time>
      </trkpt>
      <trkpt lat="36.554140" lon="-118.782030">
        <ele>1792.670</ele>
        <time>2018-12-27T16:18:00Z</time>
      </trkpt>
      <trkpt lat="36.554140" lon="-118.782080">
        <ele>1793.180</ele>
        <time>2018-12-27T16:18:20Z</time>
      </trkpt>
      <trkpt lat="36.554160" lon="-118.782320">
        <ele>1793.634</ele>
        <time>2018-12-27T16:18:40Z</time>
      </trkpt>
      <trkpt lat="36.554170" lon="-118.782450">
        <ele>1793.877</ele>
        <time>2018-12-27T16:19:00Z</time>
      </trkpt>
      <trkpt lat="36.554180" lon="-118.782500">
        <ele>1793.538</ele>
        <time>2018-12-27T16:19:20Z</time>
      </trkpt>
      <trkpt lat="36.554190" lon="-118.782550">
        <ele>1793.461</ele>
        <time>2018-12-27T16:19:40Z</time>
      </trkpt>
      <trkpt lat="36.554210" lon="-118.782590">
        <ele>1792.889</ele>
        <time>2018-12-27T16:20:00Z</time>
      </trkpt>
      <trkpt lat="36.554230" lon="-118.782630">
        <ele>1792.206</ele>
        <time>2018-12-27T16:20:20Z</time>
      </trkpt>
      <trkpt lat="36.554260" lon="-118.782680">
        <ele>1791.226</ele>
        <time>2018-12-27T16:20:40Z</time>
      </trkpt>
      <trkpt lat="36.554290" lon="-118.782720">
        <ele>1790.208</ele>
        <time>2018-12-27T16:21:00Z</time>
      </trkpt>
      <trkpt lat="36.554320" lon="-118.782760">
        <ele>1789.681</ele>
        <time>2018-12-27T16:21:20Z</time>
      </trkpt>
      <trkpt lat="36.554350" lon="-118.782790">
        <ele>1789.379</ele>
        <time>2018-12-27T16:21:40Z</time>
      </trkpt>
      <trkpt lat="36.554420" lon="-118.782860">
        <ele>1788.994</ele>
        <time>2018-12-27T16:22:00Z</time>
      </trkpt>
      <trkpt lat="36.554590" lon="-118.782990">
        <ele>1787.544</ele>
        <time>2018-12-27T16:22:20Z</time>
      </trkpt>
      <trkpt lat="36.554630" lon="-118.783010">
        <ele>1787.158</ele>
        <time>2018-12-27T16:22:40Z</time>
      </trkpt>
      <trkpt lat="36.554670" lon="-118.783040">
        <ele>1786.711</ele>
        <time>2018-12-27T16:23:00Z</time>
      </trkpt>
      <trkpt lat="36.554730" lon="-118.783060">
        <ele>1786.392</ele>
        <time>2018-12-27T16:23:20Z</time>
      </trkpt>
      <trkpt lat="36.554840" lon="-118.783120">
        <ele>1786.235</ele>
        <time>2018-12-27T16:23:40Z</time>
      </trkpt>
      <trkpt lat="36.554890" lon="-118.783160">
        <ele>1785.972</ele>
        <time>2018-12-27T16:24:00Z</time>
      </trkpt>
      <trkpt lat="36.554950" lon="-118.783200">
        <ele>1785.113</ele>
        <time>2018-12-27T16:24:20Z</time>
      </trkpt>
      <trkpt lat="36.554990" lon="-118.783230">
        <ele>1784.114</ele>
        <time>2018-12-27T16:24:40Z</time>
      </trkpt>
      <trkpt lat="36.555020" lon="-118.783260">
        <ele>1783.408</ele>
        <time>2018-12-27T16:25:00Z</time>
      </trkpt>
      <trkpt lat="36.555080" lon="-118.783320">
        <ele>1782.190</ele>
        <time>2018-12-27T16:25:20Z</time>
      </trkpt>
      <trkpt lat="36.555110" lon="-118.783360">
        <ele>1781.518</ele>
        <time>2018-12-27T16:25:40Z</time>
      </trkpt>
      <trkpt lat="36.555140" lon="-118.783410">
        <ele>1780.953</ele>
        <time>2018-12-27T16:26:00Z</time>
      </trkpt>
      <trkpt lat="36.555270" lon="-118.783600">
        <ele>1777.493</ele>
        <time>2018-12-27T16:26:20Z</time>
      </trkpt>
      <trkpt lat="36.555460" lon="-118.783870">
        <ele>1775.417</ele>
        <time>2018-12-27T16:26:40Z</time>
      </trkpt>
      <trkpt lat="36.555490" lon="-118.783910">
        <ele>1775.150</ele>
        <time>2018-12-27T16:27:00Z</time>
      </trkpt>
      <trkpt lat="36.555530" lon="-118.783950">
        <ele>1775.151</ele>
        <time>2018-12-27T16:27:20Z</time>
      </trkpt>
      <trkpt lat="36.555570" lon="-118.783990">
        <ele>1775.384</ele>
        <time>2018-12-27T16:27:40Z</time>
      </trkpt>
      <trkpt lat="36.555600" lon="-118.784010">
        <ele>1775.676</ele>
        <time>2018-12-27T16:28:00Z</time>
      </trkpt>
      <trkpt lat="36.555630" lon="-118.784020">
        <ele>1775.990</ele>
        <time>2018-12-27T16:28:20Z</time>
      </trkpt>
      <trkpt lat="36.555650" lon="-118.784020">
        <ele>1776.119</ele>
        <time>2018-12-27T16:28:40Z</time>
      </trkpt>
      <trkpt lat="36.555680" lon="-118.784030">
        <ele>1776.508</ele>
        <time>2018-12-27T16:29:00Z</time>
      </trkpt>
      <trkpt lat="36.555710" lon="-118.784030">
        <ele>1776.370</ele>
        <time>2018-12-27T16:29:20Z</time>
      </trkpt>
      <trkpt lat="36.555730" lon="-118.784020">
        <ele>1775.878</ele>
        <time>2018-12-27T16:29:40Z</time>
      </trkpt>
      <trkpt lat="36.555760" lon="-118.784010">
        <ele>1775.113</ele>
        <time>2018-12-27T16:30:00Z</time>
      </trkpt>
      <trkpt lat="36.555780" lon="-118.784000">
        <ele>1774.693</ele>
        <time>2018-12-27T16:30:20Z</time>
      </trkpt>
      <trkpt lat="36.555810" lon="-118.783970">
        <ele>1773.797</ele>
        <time>2018-12-27T16:30:40Z</time>
      </trkpt>
      <trkpt lat="36.555820" lon="-118.783950">
        <ele>1773.330</ele>
        <time>2018-12-27T16:31:00Z</time>
      </trkpt>
      <trkpt lat="36.555840" lon="-118.783930">
        <ele>1772.871</ele>
        <time>2018-12-27T16:31:20Z</time>
      </trkpt>
      <trkpt lat="36.555850" lon="-118.783900">
        <ele>1772.364</ele>
        <time>2018-12-27T16:31:40Z</time>
      </trkpt>
      <trkpt lat="36.555860" lon="-118.783850">
        <ele>1771.894</ele>
        <time>2018-12-27T16:32:00Z</time>
      </trkpt>
      <trkpt lat="36.555870" lon="-118.783810">
        <ele>1771.357</ele>
        <time>2018-12-27T16:32:20Z</time>
      </trkpt>
      <trkpt lat="36.555870" lon="-118.783770">
        <ele>1771.022</ele>
        <time>2018-12-27T16:32:40Z</time>
      </trkpt>
      <trkpt lat="36.555870" lon="-118.783740">
        <ele>1770.708</ele>
        <time>2018-12-27T16:33:00Z</time>
      </trkpt>
      <trkpt lat="36.555860" lon="-118.783710">
        <ele>1770.292</ele>
        <time>2018-12-27T16:33:20Z</time>
      </trkpt>
      <trkpt lat="36.555850" lon="-118.783680">
        <ele>1769.760</ele>
        <time>2018-12-27T16:33:40Z</time>
      </trkpt>
      <trkpt lat="36.555840" lon="-118.783650">
        <ele>1769.225</ele>
        <time>2018-12-27T16:34:00Z</time>
      </trkpt>
      <trkpt lat="36.555820" lon="-118.783620">
        <ele>1769.035</ele>
        <time>2018-12-27T16:34:20Z</time>
      </trkpt>
      <trkpt lat="36.555570" lon="-118.783190">
        <ele>1765.469</ele>
        <time>2018-12-27T16:34:40Z</time>
      </trkpt>
      <trkpt lat="36.555500" lon="-118.783080">
        <ele>1764.562</ele>
        <time>2018-12-27T16:35:00Z</time>
      </trkpt>
      <trkpt lat="36.555450" lon="-118.783010">
        <ele>1764.293</ele>
        <time>2018-12-27T16:35:20Z</time>
      </trkpt>
      <trkpt lat="36.555410" lon="-118.782950">
        <ele>1763.916</ele>
        <time>2018-12-27T16:35:40Z</time>
      </trkpt>
      <trkpt lat="36.555370" lon="-118.782890">
        <ele>1763.761</ele>
        <time>2018-12-27T16:36:00Z</time>
      </trkpt>
      <trkpt lat="36.555330" lon="-118.782850">
        <ele>1763.621</ele>
        <time>2018-12-27T16:36:20Z</time>
      </trkpt>
      <trkpt lat="36.555300" lon="-118.782810">
        <ele>1763.013</ele>
        <time>2018-12-27T16:36:40Z</time>
      </trkpt>
      <trkpt lat="36.555270" lon="-118.782780">
        <ele>1762.508</ele>
        <time>2018-12-27T16:37:00Z</time>
      </trkpt>
      <trkpt lat="36.555160" lon="-118.782700">
        <ele>1760.839</ele>
        <time>2018-12-27T16:37:20Z</time>
      </trkpt>
      <trkpt lat="36.555010" lon="-118.782570">
        <ele>1762.567</ele>
        <time>2018-12-27T16:37:40Z</time>
      </trkpt>
      <trkpt lat="36.554960" lon="-118.782530">
        <ele>1763.022</ele>
        <time>2018-12-27T16:38:00Z</time>
      </trkpt>
      <trkpt lat="36.554940" lon="-118.782510">
        <ele>1762.942</ele>
        <time>2018-12-27T16:38:20Z</time>
      </trkpt>
      <trkpt lat="36.554920" lon="-118.782460">
        <ele>1761.146</ele>
        <time>2018-12-27T16:38:40Z</time>
      </trkpt>
      <trkpt lat="36.554910" lon="-118.782430">
        <ele>1759.839</ele>
        <time>2018-12-27T16:39:00Z</time>
      </trkpt>
      <trkpt lat="36.554900" lon="-118.782400">
        <ele>1758.580</ele>
        <time>2018-12-27T16:39:20Z</time>
      </trkpt>
      <trkpt lat="36.554890" lon="-118.782360">
        <ele>1756.663</ele>
        <time>2018-12-27T16:39:40Z</time>
      </trkpt>
      <trkpt lat="36.554890" lon="-118.782310">
        <ele>1755.863</ele>
        <time>2018-12-27T16:40:00Z</time>
      </trkpt>
      <trkpt lat="36.554870" lon="-118.782250">
        <ele>1755.544</ele>
        <time>2018-12-27T16:40:20Z</time>
      </trkpt>
      <trkpt lat="36.554860" lon="-118.782170">
        <ele>1754.718</ele>
        <time>2018-12-27T16:40:40Z</time>
      </trkpt>
      <trkpt lat="36.554850" lon="-118.781930">
        <ele>1753.308</ele>
        <time>2018-12-27T16:41:00Z</time>
      </trkpt>
      <trkpt lat="36.554840" lon="-118.781860">
        <ele>1753.699</ele>
        <time>2018-12-27T16:41:20Z</time>
      </trkpt>
      <trkpt lat="36.554810" lon="-118.781670">
        <ele>1754.527</ele>
        <time>2018-12-27T16:41:40Z</time>
      </trkpt>
      <trkpt lat="36.554800" lon="-118.781570">
        <ele>1754.552</ele>
        <time>2018-12-27T16:42:00Z</time>
      </trkpt>
      <trkpt lat="36.554800" lon="-118.781510">
        <ele>1754.262</ele>
        <time>2018-12-27T16:42:20Z</time>
      </trkpt>
      <trkpt lat="36.554800" lon="-118.781420">
        <ele>1753.636</ele>
        <time>2018-12-27T16:42:40Z</time>
      </trkpt>
      <trkpt lat="36.554810" lon="-118.781380">
        <ele>1752.849</ele>
        <time>2018-12-27T16:43:00Z</time>
      </trkpt>
      <trkpt lat="36.554820" lon="-118.781330">
        <ele>1751.940</ele>
        <time>2018-12-27T16:43:20Z</time>
      </trkpt>
      <trkpt lat="36.554830" lon="-118.781290">
        <ele>1751.193</ele>
        <time>2018-12-27T16:43:40Z</time>
      </trkpt>
      <trkpt lat="36.554850" lon="-118.781230">
        <ele>1750.049</ele>
        <time>2018-12-27T16:44:00Z</time>
      </trkpt>
      <trkpt lat="36.554870" lon="-118.781190">
        <ele>1749.502</ele>
        <time>2018-12-27T16:44:20Z</time>
      </trkpt>
      <trkpt lat="36.554890" lon="-118.781160">
        <ele>1749.122</ele>
        <time>2018-12-27T16:44:40Z</time>
      </trkpt>
      <trkpt lat="36.554910" lon="-118.781120">
        <ele>1748.808</ele>
        <time>2018-12-27T16:45:00Z</time>
      </trkpt>
      <trkpt lat="36.554960" lon="-118.781030">
        <ele>1748.097</ele>
        <time>2018-12-27T16:45:20Z</time>
      </trkpt>
      <trkpt lat="36.555100" lon="-118.780830">
        <ele>1746.395</ele>
        <time>2018-12-27T16:45:40Z</time>
      </trkpt>
      <trkpt lat="36.555220" lon="-118.780690">
        <ele>1744.490</ele>
        <time>2018-12-27T16:46:00Z</time>
      </trkpt>
      <trkpt lat="36.555290" lon="-118.780600">
        <ele>1742.260</ele>
        <time>2018-12-27T16:46:20Z</time>
      </trkpt>
      <trkpt lat="36.555330" lon="-118.780550">
        <ele>1741.064</ele>
        <time>2018-12-27T16:46:40Z</time>
      </trkpt>
      <trkpt lat="36.555360" lon="-118.780510">
        <ele>1740.167</ele>
        <time>2018-12-27T16:47:00Z</time>
      </trkpt>
      <trkpt lat="36.555410" lon="-118.780430">
        <ele>1738.738</ele>
        <time>2018-12-27T16:47:20Z</time>
      </trkpt>
      <trkpt lat="36.555420" lon="-118.780400">
        <ele>1738.371</ele>
        <time>2018-12-27T16:47:40Z</time>
      </trkpt>
      <trkpt lat="36.555430" lon="-118.780380">
        <ele>1737.915</ele>
        <time>2018-12-27T16:48:00Z</time>
      </trkpt>
      <trkpt lat="36.555440" lon="-118.780350">
        <ele>1737.565</ele>
        <time>2018-12-27T16:48:20Z</time>
      </trkpt>
      <trkpt lat="36.555440" lon="-118.780310">
        <ele>1737.311</ele>
        <time>2018-12-27T16:48:40Z</time>
      </trkpt>
      <trkpt lat="36.555440" lon="-118.780280">
        <ele>1737.208</ele>
        <time>2018-12-27T16:49:00Z</time>
      </trkpt>
      <trkpt lat="36.555440" lon="-118.780240">
        <ele>1737.044</ele>
        <time>2018-12-27T16:49:20Z</time>
      </trkpt>
      <trkpt lat="36.555430" lon="-118.780210">
        <ele>1737.262</ele>
        <time>2018-12-27T16:49:40Z</time>
      </trkpt>
      <trkpt lat="36.555420" lon="-118.780170">
        <ele>1737.427</ele>
        <time>2018-12-27T16:50:00Z</time>
      </trkpt>
      <trkpt lat="36.555400" lon="-118.780100">
        <ele>1737.637</ele>
        <time>2018-12-27T16:50:20Z</time>
      </trkpt>
      <trkpt lat="36.555380" lon="-118.780030">
        <ele>1737.611</ele>
        <time>2018-12-27T16:50:40Z</time>
      </trkpt>
      <trkpt lat="36.555330" lon="-118.779910">
        <ele>1738.064</ele>
        <time>2018-12-27T16:51:00Z</time>
      </trkpt>
      <trkpt lat="36.555310" lon="-118.779870">
        <ele>1738.155</ele>
        <time>2018-12-27T16:51:20Z</time>
      </trkpt>
      <trkpt lat="36.555300" lon="-118.779840">
        <ele>1738.248</ele>
        <time>2018-12-27T16:51:40Z</time>
      </trkpt>
      <trkpt lat="36.555290" lon="-118.779800">
        <ele>1738.271</ele>
        <time>2018-12-27T16:52:00Z</time>
      </trkpt>
      <trkpt lat="36.555280" lon="-118.779730">
        <ele>1738.041</ele>
        <time>2018-12-27T16:52:20Z</time>
      </trkpt>
      <trkpt lat="36.555280" lon="-118.779690">
        <ele>1737.715</ele>
        <time>2018-12-27T16:52:40Z</time>
      </trkpt>
      <trkpt lat="36.555280" lon="-118.779650">
        <ele>1737.508</ele>
        <time>2018-12-27T16:53:00Z</time>
      </trkpt>
      <trkpt lat="36.555290" lon="-118.779620">
        <ele>1737.010</ele>
        <time>2018-12-27T16:53:20Z</time>
      </trkpt>
      <trkpt lat="36.555300" lon="-118.779570">
        <ele>1736.428</ele>
        <time>2018-12-27T16:53:40Z</time>
      </trkpt>
      <trkpt lat="36.555310" lon="-118.779530">
        <ele>1735.713</ele>
        <time>2018-12-27T16:54:00Z</time>
      </trkpt>
      <trkpt lat="36.555330" lon="-118.779480">
        <ele>1734.573</ele>
        <time>2018-12-27T16:54:20Z</time>
      </trkpt>
      <trkpt lat="36.555350" lon="-118.779430">
        <ele>1733.497</ele>
        <time>2018-12-27T16:54:40Z</time>
      </trkpt>
      <trkpt lat="36.555370" lon="-118.779400">
        <ele>1732.470</ele>
        <time>2018-12-27T16:55:00Z</time>
      </trkpt>
      <trkpt lat="36.555380" lon="-118.779380">
        <ele>1731.931</ele>
        <time>2018-12-27T16:55:20Z</time>
      </trkpt>
      <trkpt lat="36.555400" lon="-118.779360">
        <ele>1731.144</ele>
        <time>2018-12-27T16:55:40Z</time>
      </trkpt>
      <trkpt lat="36.555420" lon="-118.779330">
        <ele>1730.152</ele>
        <time>2018-12-27T16:56:00Z</time>
      </trkpt>
      <trkpt lat="36.555450" lon="-118.779310">
        <ele>1728.953</ele>
        <time>2018-12-27T16:56:20Z</time>
      </trkpt>
      <trkpt lat="36.555470" lon="-118.779300">
        <ele>1728.308</ele>
        <time>2018-12-27T16:56:40Z</time>
      </trkpt>
      <trkpt lat="36.555500" lon="-118.779280">
        <ele>1727.608</ele>
        <time>2018-12-27T16:57:00Z</time>
      </trkpt>
      <trkpt lat="36.555530" lon="-118.779270">
        <ele>1726.918</ele>
        <time>2018-12-27T16:57:20Z</time>
      </trkpt>
      <trkpt lat="36.555550" lon="-118.779270">
        <ele>1726.396</ele>
        <time>2018-12-27T16:57:40Z</time>
      </trkpt>
      <trkpt lat="36.555580" lon="-118.779270">
        <ele>1725.591</ele>
        <time>2018-12-27T16:58:00Z</time>
      </trkpt>
      <trkpt lat="36.555600" lon="-118.779270">
        <ele>1724.911</ele>
        <time>2018-12-27T16:58:20Z</time>
      </trkpt>
      <trkpt lat="36.555630" lon="-118.779280">
        <ele>1724.095</ele>
        <time>2018-12-27T16:58:40Z</time>
      </trkpt>
      <trkpt lat="36.555660" lon="-118.779280">
        <ele>1723.128</ele>
        <time>2018-12-27T16:59:00Z</time>
      </trkpt>
      <trkpt lat="36.555680" lon="-118.779300">
        <ele>1722.249</ele>
        <time>2018-12-27T16:59:20Z</time>
      </trkpt>
      <trkpt lat="36.555700" lon="-118.779310">
        <ele>1721.732</ele>
        <time>2018-12-27T16:59:40Z</time>
      </trkpt>
      <trkpt lat="36.555730" lon="-118.779330">
        <ele>1722.271</ele>
        <time>2018-12-27T17:00:00Z</time>
      </trkpt>
      <trkpt lat="36.555780" lon="-118.779380">
        <ele>1722.541</ele>
        <time>2018-12-27T17:00:20Z</time>
      </trkpt>
      <trkpt lat="36.555810" lon="-118.779420">
        <ele>1722.315</ele>
        <time>2018-12-27T17:00:40Z</time>
      </trkpt>
      <trkpt lat="36.555890" lon="-118.779510">
        <ele>1721.208</ele>
        <time>2018-12-27T17:01:00Z</time>
      </trkpt>
      <trkpt lat="36.556190" lon="-118.779870">
        <ele>1716.640</ele>
        <time>2018-12-27T17:01:20Z</time>
      </trkpt>
      <trkpt lat="36.556250" lon="-118.779930">
        <ele>1715.968</ele>
        <time>2018-12-27T17:01:40Z</time>
      </trkpt>
      <trkpt lat="36.556300" lon="-118.780010">
        <ele>1714.643</ele>
        <time>2018-12-27T17:02:00Z</time>
      </trkpt>
      <trkpt lat="36.556350" lon="-118.780060">
        <ele>1713.953</ele>
        <time>2018-12-27T17:02:20Z</time>
      </trkpt>
      <trkpt lat="36.556660" lon="-118.780480">
        <ele>1706.417</ele>
        <time>2018-12-27T17:02:40Z</time>
      </trkpt>
      <trkpt lat="36.556700" lon="-118.780530">
        <ele>1705.790</ele>
        <time>2018-12-27T17:03:00Z</time>
      </trkpt>
      <trkpt lat="36.556740" lon="-118.780570">
        <ele>1704.951</ele>
        <time>2018-12-27T17:03:20Z</time>
      </trkpt>
      <trkpt lat="36.556780" lon="-118.780600">
        <ele>1704.084</ele>
        <time>2018-12-27T17:03:40Z</time>
      </trkpt>
      <trkpt lat="36.556810" lon="-118.780630">
        <ele>1703.297</ele>
        <time>2018-12-27T17:04:00Z</time>
      </trkpt>
      <trkpt lat="36.556850" lon="-118.780650">
        <ele>1703.023</ele>
        <time>2018-12-27T17:04:20Z</time>
      </trkpt>
      <trkpt lat="36.556890" lon="-118.780680">
        <ele>1702.725</ele>
        <time>2018-12-27T17:04:40Z</time>
      </trkpt>
      <trkpt lat="36.556960" lon="-118.780710">
        <ele>1702.508</ele>
        <time>2018-12-27T17:05:00Z</time>
      </trkpt>
      <trkpt lat="36.557010" lon="-118.780740">
        <ele>1702.312</ele>
        <time>2018-12-27T17:05:20Z</time>
      </trkpt>
      <trkpt lat="36.557040" lon="-118.780760">
        <ele>1702.090</ele>
        <time>2018-12-27T17:05:40Z</time>
      </trkpt>
      <trkpt lat="36.557060" lon="-118.780780">
        <ele>1701.855</ele>
        <time>2018-12-27T17:06:00Z</time>
      </trkpt>
      <trkpt lat="36.557080" lon="-118.780790">
        <ele>1701.685</ele>
        <time>2018-12-27T17:06:20Z</time>
      </trkpt>
      <trkpt lat="36.557100" lon="-118.780830">
        <ele>1701.289</ele>
        <time>2018-12-27T17:06:40Z</time>
      </trkpt>
      <trkpt lat="36.557120" lon="-118.780860">
        <ele>1700.922</ele>
        <time>2018-12-27T17:07:00Z</time>
      </trkpt>
      <trkpt lat="36.557140" lon="-118.780910">
        <ele>1700.383</ele>
        <time>2018-12-27T17:07:20Z</time>
      </trkpt>
      <trkpt lat="36.557210" lon="-118.781100">
        <ele>1698.596</ele>
        <time>2018-12-27T17:07:40Z</time>
      </trkpt>
      <trkpt lat="36.557220" lon="-118.781150">
        <ele>1698.079</ele>
        <time>2018-12-27T17:08:00Z</time>
      </trkpt>
      <trkpt lat="36.557250" lon="-118.781210">
        <ele>1697.505</ele>
        <time>2018-12-27T17:08:20Z</time>
      </trkpt>
      <trkpt lat="36.557280" lon="-118.781260">
        <ele>1697.225</ele>
        <time>2018-12-27T17:08:40Z</time>
      </trkpt>
      <trkpt lat="36.557310" lon="-118.781290">
        <ele>1697.208</ele>
        <time>2018-12-27T17:09:00Z</time>
      </trkpt>
      <trkpt lat="36.557330" lon="-118.781330">
        <ele>1696.910</ele>
        <time>2018-12-27T17:09:20Z</time>
      </trkpt>
      <trkpt lat="36.557360" lon="-118.781350">
        <ele>1696.928</ele>
        <time>2018-12-27T17:09:40Z</time>
      </trkpt>
      <trkpt lat="36.557380" lon="-118.781380">
        <ele>1696.543</ele>
        <time>2018-12-27T17:10:00Z</time>
      </trkpt>
      <trkpt lat="36.557440" lon="-118.781430">
        <ele>1696.063</ele>
        <time>2018-12-27T17:10:20Z</time>
      </trkpt>
      <trkpt lat="36.557490" lon="-118.781470">
        <ele>1695.637</ele>
        <time>2018-12-27T17:10:40Z</time>
      </trkpt>
      <trkpt lat="36.557520" lon="-118.781510">
        <ele>1695.090</ele>
        <time>2018-12-27T17:11:00Z</time>
      </trkpt>
      <trkpt lat="36.557550" lon="-118.781540">
        <ele>1694.771</ele>
        <time>2018-12-27T17:11:20Z</time>
      </trkpt>
      <trkpt lat="36.557570" lon="-118.781570">
        <ele>1694.564</ele>
        <time>2018-12-27T17:11:40Z</time>
      </trkpt>
      <trkpt lat="36.557590" lon="-118.781590">
        <ele>1694.364</ele>
        <time>2018-12-27T17:12:00Z</time>
      </trkpt>
      <trkpt lat="36.557610" lon="-118.781620">
        <ele>1694.106</ele>
        <time>2018-12-27T17:12:20Z</time>
      </trkpt>
      <trkpt lat="36.557660" lon="-118.781720">
        <ele>1693.716</ele>
        <time>2018-12-27T17:12:40Z</time>
      </trkpt>
      <trkpt lat="36.557690" lon="-118.781760">
        <ele>1693.708</ele>
        <time>2018-12-27T17:13:00Z</time>
      </trkpt>
      <trkpt lat="36.557700" lon="-118.781790">
        <ele>1693.579</ele>
        <time>2018-12-27T17:13:20Z</time>
      </trkpt>
      <trkpt lat="36.557750" lon="-118.781880">
        <ele>1693.057</ele>
        <time>2018-12-27T17:13:40Z</time>
      </trkpt>
      <trkpt lat="36.557870" lon="-118.782110">
        <ele>1691.622</ele>
        <time>2018-12-27T17:14:00Z</time>
      </trkpt>
      <trkpt lat="36.557900" lon="-118.782170">
        <ele>1691.262</ele>
        <time>2018-12-27T17:14:20Z</time>
      </trkpt>
      <trkpt lat="36.557940" lon="-118.782220">
        <ele>1691.056</ele>
        <time>2018-12-27T17:14:40Z</time>
      </trkpt>
      <trkpt lat="36.557960" lon="-118.782250">
        <ele>1690.979</ele>
        <time>2018-12-27T17:15:00Z</time>
      </trkpt>
      <trkpt lat="36.558000" lon="-118.782290">
        <ele>1690.890</ele>
        <time>2018-12-27T17:15:20Z</time>
      </trkpt>
      <trkpt lat="36.558030" lon="-118.782320">
        <ele>1690.613</ele>
        <time>2018-12-27T17:15:40Z</time>
      </trkpt>
      <trkpt lat="36.558080" lon="-118.782360">
        <ele>1690.537</ele>
        <time>2018-12-27T17:16:00Z</time>
      </trkpt>
      <trkpt lat="36.558120" lon="-118.782400">
        <ele>1690.349</ele>
        <time>2018-12-27T17:16:20Z</time>
      </trkpt>
      <trkpt lat="36.558160" lon="-118.782430">
        <ele>1690.113</ele>
        <time>2018-12-27T17:16:40Z</time>
      </trkpt>
      <trkpt lat="36.558180" lon="-118.782460">
        <ele>1689.908</ele>
        <time>2018-12-27T17:17:00Z</time>
      </trkpt>
      <trkpt lat="36.558200" lon="-118.782490">
        <ele>1689.616</ele>
        <time>2018-12-27T17:17:20Z</time>
      </trkpt>
      <trkpt lat="36.558220" lon="-118.782510">
        <ele>1689.634</ele>
        <time>2018-12-27T17:17:40Z</time>
      </trkpt>
      <trkpt lat="36.558230" lon="-118.782540">
        <ele>1689.359</ele>
        <time>2018-12-27T17:18:00Z</time>
      </trkpt>
      <trkpt lat="36.558230" lon="-118.782560">
        <ele>1689.089</ele>
        <time>2018-12-27T17:18:20Z</time>
      </trkpt>
      <trkpt lat="36.558230" lon="-118.782580">
        <ele>1688.733</ele>
        <time>2018-12-27T17:18:40Z</time>
      </trkpt>
      <trkpt lat="36.558200" lon="-118.782710">
        <ele>1686.576</ele>
        <time>2018-12-27T17:19:00Z</time>
      </trkpt>
      <trkpt lat="36.558190" lon="-118.782710">
        <ele>1686.547</ele>
        <time>2018-12-27T17:19:20Z</time>
      </trkpt>
      <trkpt lat="36.558180" lon="-118.782730">
        <ele>1686.210</ele>
        <time>2018-12-27T17:19:40Z</time>
      </trkpt>
      <trkpt lat="36.558160" lon="-118.782730">
        <ele>1686.167</ele>
        <time>2018-12-27T17:20:00Z</time>
      </trkpt>
      <trkpt lat="36.558140" lon="-118.782740">
        <ele>1686.081</ele>
        <time>2018-12-27T17:20:20Z</time>
      </trkpt>
      <trkpt lat="36.558120" lon="-118.782750">
        <ele>1685.819</ele>
        <time>2018-12-27T17:20:40Z</time>
      </trkpt>
      <trkpt lat="36.558100" lon="-118.782760">
        <ele>1685.708</ele>
        <time>2018-12-27T17:21:00Z</time>
      </trkpt>
      <trkpt lat="36.558080" lon="-118.782760">
        <ele>1685.799</ele>
        <time>2018-12-27T17:21:20Z</time>
      </trkpt>
      <trkpt lat="36.558060" lon="-118.782750">
        <ele>1685.797</ele>
        <time>2018-12-27T17:21:40Z</time>
      </trkpt>
      <trkpt lat="36.558040" lon="-118.782750">
        <ele>1685.782</ele>
        <time>2018-12-27T17:22:00Z</time>
      </trkpt>
      <trkpt lat="36.558020" lon="-118.782740">
        <ele>1685.712</ele>
        <time>2018-12-27T17:22:20Z</time>
      </trkpt>
      <trkpt lat="36.558010" lon="-118.782730">
        <ele>1685.876</ele>
        <time>2018-12-27T17:22:40Z</time>
      </trkpt>
      <trkpt lat="36.557990" lon="-118.782720">
        <ele>1685.859</ele>
        <time>2018-12-27T17:23:00Z</time>
      </trkpt>
      <trkpt lat="36.557920" lon="-118.782620">
        <ele>1686.220</ele>
        <time>2018-12-27T17:23:20Z</time>
      </trkpt>
      <trkpt lat="36.557860" lon="-118.782530">
        <ele>1687.673</ele>
        <time>2018-12-27T17:23:40Z</time>
      </trkpt>
      <trkpt lat="36.557840" lon="-118.782500">
        <ele>1688.016</ele>
        <time>2018-12-27T17:24:00Z</time>
      </trkpt>
      <trkpt lat="36.557820" lon="-118.782490">
        <ele>1688.176</ele>
        <time>2018-12-27T17:24:20Z</time>
      </trkpt>
      <trkpt lat="36.557800" lon="-118.782480">
        <ele>1688.213</ele>
        <time>2018-12-27T17:24:40Z</time>
      </trkpt>
      <trkpt lat="36.557780" lon="-118.782480">
        <ele>1688.308</ele>
        <time>2018-12-27T17:25:00Z</time>
      </trkpt>
      <trkpt lat="36.557750" lon="-118.782480">
        <ele>1688.484</ele>
        <time>2018-12-27T17:25:20Z</time>
      </trkpt>
      <trkpt lat="36.557730" lon="-118.782480">
        <ele>1688.432</ele>
        <time>2018-12-27T17:25:40Z</time>
      </trkpt>
      <trkpt lat="36.557700" lon="-118.782500">
        <ele>1688.557</ele>
        <time>2018-12-27T17:26:00Z</time>
      </trkpt>
      <trkpt lat="36.557670" lon="-118.782510">
        <ele>1688.777</ele>
        <time>2018-12-27T17:26:20Z</time>
      </trkpt>
      <trkpt lat="36.557660" lon="-118.782520">
        <ele>1688.871</ele>
        <time>2018-12-27T17:26:40Z</time>
      </trkpt>
      <trkpt lat="36.557650" lon="-118.782540">
        <ele>1688.914</ele>
        <time>2018-12-27T17:27:00Z</time>
      </trkpt>
      <trkpt lat="36.557640" lon="-118.782560">
        <ele>1689.195</ele>
        <time>2018-12-27T17:27:20Z</time>
      </trkpt>
      <trkpt lat="36.557630" lon="-118.782580">
        <ele>1689.598</ele>
        <time>2018-12-27T17:27:40Z</time>
      </trkpt>
      <trkpt lat="36.557630" lon="-118.782600">
        <ele>1689.625</ele>
        <time>2018-12-27T17:28:00Z</time>
      </trkpt>
      <trkpt lat="36.557630" lon="-118.782620">
        <ele>1689.826</ele>
        <time>2018-12-27T17:28:20Z</time>
      </trkpt>
      <trkpt lat="36.557630" lon="-118.782660">
        <ele>1690.108</ele>
        <time>2018-12-27T17:28:40Z</time>
      </trkpt>
      <trkpt lat="36.557630" lon="-118.782700">
        <ele>1690.408</ele>
        <time>2018-12-27T17:29:00Z</time>
      </trkpt>
      <trkpt lat="36.557630" lon="-118.782730">
        <ele>1690.685</ele>
        <time>2018-12-27T17:29:20Z</time>
      </trkpt>
      <trkpt lat="36.557640" lon="-118.782760">
        <ele>1690.663</ele>
        <time>2018-12-27T17:29:40Z</time>
      </trkpt>
      <trkpt lat="36.557650" lon="-118.782790">
        <ele>1690.628</ele>
        <time>2018-12-27T17:30:00Z</time>
      </trkpt>
      <trkpt lat="36.557820" lon="-118.783100">
        <ele>1689.018</ele>
        <time>2018-12-27T17:30:20Z</time>
      </trkpt>
      <trkpt lat="36.558020" lon="-118.783520">
        <ele>1687.822</ele>
        <time>2018-12-27T17:30:40Z</time>
      </trkpt>
      <trkpt lat="36.558240" lon="-118.784000">
        <ele>1688.615</ele>
        <time>2018-12-27T17:31:00Z</time>
      </trkpt>
      <trkpt lat="36.558270" lon="-118.784040">
        <ele>1688.446</ele>
        <time>2018-12-27T17:31:20Z</time>
      </trkpt>
      <trkpt lat="36.558310" lon="-118.784090">
        <ele>1688.249</ele>
        <time>2018-12-27T17:31:40Z</time>
      </trkpt>
      <trkpt lat="36.558330" lon="-118.784110">
        <ele>1688.018</ele>
        <time>2018-12-27T17:32:00Z</time>
      </trkpt>
      <trkpt lat="36.558370" lon="-118.784140">
        <ele>1687.498</ele>
        <time>2018-12-27T17:32:20Z</time>
      </trkpt>
      <trkpt lat="36.558630" lon="-118.784270">
        <ele>1683.317</ele>
        <time>2018-12-27T17:32:40Z</time>
      </trkpt>
      <trkpt lat="36.558680" lon="-118.784300">
        <ele>1682.708</ele>
        <time>2018-12-27T17:33:00Z</time>
      </trkpt>
      <trkpt lat="36.558710" lon="-118.784320">
        <ele>1682.394</ele>
        <time>2018-12-27T17:33:20Z</time>
      </trkpt>
      <trkpt lat="36.558740" lon="-118.784340">
        <ele>1681.862</ele>
        <time>2018-12-27T17:33:40Z</time>
      </trkpt>
      <trkpt lat="36.558810" lon="-118.784390">
        <ele>1680.767</ele>
        <time>2018-12-27T17:34:00Z</time>
      </trkpt>
      <trkpt lat="36.558840" lon="-118.784420">
        <ele>1680.377</ele>
        <time>2018-12-27T17:34:20Z</time>
      </trkpt>
      <trkpt lat="36.558870" lon="-118.784450">
        <ele>1679.921</ele>
        <time>2018-12-27T17:34:40Z</time>
      </trkpt>
      <trkpt lat="36.558890" lon="-118.784480">
        <ele>1679.694</ele>
        <time>2018-12-27T17:35:00Z</time>
      </trkpt>
      <trkpt lat="36.558900" lon="-118.784500">
        <ele>1679.645</ele>
        <time>2018-12-27T17:35:20Z</time>
      </trkpt>
      <trkpt lat="36.558910" lon="-118.784520">
        <ele>1679.558</ele>
        <time>2018-12-27T17:35:40Z</time>
      </trkpt>
      <trkpt lat="36.558930" lon="-118.784570">
        <ele>1679.485</ele>
        <time>2018-12-27T17:36:00Z</time>
      </trkpt>
      <trkpt lat="36.558930" lon="-118.784600">
        <ele>1679.589</ele>
        <time>2018-12-27T17:36:20Z</time>
      </trkpt>
      <trkpt lat="36.558940" lon="-118.784630">
        <ele>1679.217</ele>
        <time>2018-12-27T17:36:40Z</time>
      </trkpt>
      <trkpt lat="36.558940" lon="-118.784660">
        <ele>1679.208</ele>
        <time>2018-12-27T17:37:00Z</time>
      </trkpt>
      <trkpt lat="36.558950" lon="-118.784680">
        <ele>1678.971</ele>
        <time>2018-12-27T17:37:20Z</time>
      </trkpt>
      <trkpt lat="36.558950" lon="-118.784700">
        <ele>1678.939</ele>
        <time>2018-12-27T17:37:40Z</time>
      </trkpt>
      <trkpt lat="36.558940" lon="-118.784730">
        <ele>1679.294</ele>
        <time>2018-12-27T17:38:00Z</time>
      </trkpt>
      <trkpt lat="36.558940" lon="-118.784780">
        <ele>1679.254</ele>
        <time>2018-12-27T17:38:20Z</time>
      </trkpt>
      <trkpt lat="36.558900" lon="-118.784930">
        <ele>1679.678</ele>
        <time>2018-12-27T17:38:40Z</time>
      </trkpt>
      <trkpt lat="36.558870" lon="-118.785030">
        <ele>1679.651</ele>
        <time>2018-12-27T17:39:00Z</time>
      </trkpt>
      <trkpt lat="36.558770" lon="-118.785340">
        <ele>1680.092</ele>
        <time>2018-12-27T17:39:20Z</time>
      </trkpt>
      <trkpt lat="36.558760" lon="-118.785370">
        <ele>1680.285</ele>
        <time>2018-12-27T17:39:40Z</time>
      </trkpt>
      <trkpt lat="36.558750" lon="-118.785410">
        <ele>1680.229</ele>
        <time>2018-12-27T17:40:00Z</time>
      </trkpt>
      <trkpt lat="36.558750" lon="-118.785450">
        <ele>1680.100</ele>
        <time>2018-12-27T17:40:20Z</time>
      </trkpt>
      <trkpt lat="36.558750" lon="-118.785460">
        <ele>1680.120</ele>
        <time>2018-12-27T17:40:40Z</time>
      </trkpt>
      <trkpt lat="36.558740" lon="-118.785480">
        <ele>1680.408</ele>
        <time>2018-12-27T17:41:00Z</time>
      </trkpt>
      <trkpt lat="36.558740" lon="-118.785510">
        <ele>1680.385</ele>
        <time>2018-12-27T17:41:20Z</time>
      </trkpt>
      <trkpt lat="36.558750" lon="-118.785790">
        <ele>1679.483</ele>
        <time>2018-12-27T17:41:40Z</time>
      </trkpt>
      <trkpt lat="36.558750" lon="-118.785830">
        <ele>1679.358</ele>
        <time>2018-12-27T17:42:00Z</time>
      </trkpt>
      <trkpt lat="36.558740" lon="-118.785870">
        <ele>1679.568</ele>
        <time>2018-12-27T17:42:20Z</time>
      </trkpt>
      <trkpt lat="36.558740" lon="-118.785920">
        <ele>1679.462</ele>
        <time>2018-12-27T17:42:40Z</time>
      </trkpt>
      <trkpt lat="36.558730" lon="-118.785960">
        <ele>1679.695</ele>
        <time>2018-12-27T17:43:00Z</time>
      </trkpt>
      <trkpt lat="36.558720" lon="-118.786000">
        <ele>1679.756</ele>
        <time>2018-12-27T17:43:20Z</time>
      </trkpt>
      <trkpt lat="36.558710" lon="-118.786070">
        <ele>1679.779</ele>
        <time>2018-12-27T17:43:40Z</time>
      </trkpt>
      <trkpt lat="36.558680" lon="-118.786170">
        <ele>1680.024</ele>
        <time>2018-12-27T17:44:00Z</time>
      </trkpt>
      <trkpt lat="36.558630" lon="-118.786420">
        <ele>1680.204</ele>
        <time>2018-12-27T17:44:20Z</time>
      </trkpt>
      <trkpt lat="36.558620" lon="-118.786500">
        <ele>1680.114</ele>
        <time>2018-12-27T17:44:40Z</time>
      </trkpt>
      <trkpt lat="36.558610" lon="-118.786570">
        <ele>1680.208</ele>
        <time>2018-12-27T17:45:00Z</time>
      </trkpt>
      <trkpt lat="36.558600" lon="-118.786630">
        <ele>1680.335</ele>
        <time>2018-12-27T17:45:20Z</time>
      </trkpt>
      <trkpt lat="36.558600" lon="-118.786690">
        <ele>1680.233</ele>
        <time>2018-12-27T17:45:40Z</time>
      </trkpt>
      <trkpt lat="36.558600" lon="-118.786760">
        <ele>1680.068</ele>
        <time>2018-12-27T17:46:00Z</time>
      </trkpt>
      <trkpt lat="36.558600" lon="-118.786830">
        <ele>1679.998</ele>
        <time>2018-12-27T17:46:20Z</time>
      </trkpt>
      <trkpt lat="36.558610" lon="-118.786890">
        <ele>1679.782</ele>
        <time>2018-12-27T17:46:40Z</time>
      </trkpt>
      <trkpt lat="36.558610" lon="-118.786930">
        <ele>1679.755</ele>
        <time>2018-12-27T17:47:00Z</time>
      </trkpt>
      <trkpt lat="36.558620" lon="-118.787000">
        <ele>1679.516</ele>
        <time>2018-12-27T17:47:20Z</time>
      </trkpt>
      <trkpt lat="36.558630" lon="-118.787040">
        <ele>1679.319</ele>
        <time>2018-12-27T17:47:40Z</time>
      </trkpt>
      <trkpt lat="36.558640" lon="-118.787080">
        <ele>1679.143</ele>
        <time>2018-12-27T17:48:00Z</time>
      </trkpt>
      <trkpt lat="36.558650" lon="-118.787110">
        <ele>1678.964</ele>
        <time>2018-12-27T17:48:20Z</time>
      </trkpt>
      <trkpt lat="36.558660" lon="-118.787140">
        <ele>1678.710</ele>
        <time>2018-12-27T17:48:40Z</time>
      </trkpt>
      <trkpt lat="36.558680" lon="-118.787170">
        <ele>1678.308</ele>
        <time>2018-12-27T17:49:00Z</time>
      </trkpt>
      <trkpt lat="36.558690" lon="-118.787200">
        <ele>1678.247</ele>
        <time>2018-12-27T17:49:20Z</time>
      </trkpt>
      <trkpt lat="36.558710" lon="-118.787220">
        <ele>1677.995</ele>
        <time>2018-12-27T17:49:40Z</time>
      </trkpt>
      <trkpt lat="36.558730" lon="-118.787250">
        <ele>1677.780</ele>
        <time>2018-12-27T17:50:00Z</time>
      </trkpt>
      <trkpt lat="36.558760" lon="-118.787280">
        <ele>1677.550</ele>
        <time>2018-12-27T17:50:20Z</time>
      </trkpt>
      <trkpt lat="36.558870" lon="-118.787380">
        <ele>1676.764</ele>
        <time>2018-12-27T17:50:40Z</time>
      </trkpt>
      <trkpt lat="36.559020" lon="-118.787510">
        <ele>1674.987</ele>
        <time>2018-12-27T17:51:00Z</time>
      </trkpt>
      <trkpt lat="36.559030" lon="-118.787530">
        <ele>1674.888</ele>
        <time>2018-12-27T17:51:20Z</time>
      </trkpt>
      <trkpt lat="36.559050" lon="-118.787550">
        <ele>1674.591</ele>
        <time>2018-12-27T17:51:40Z</time>
      </trkpt>
      <trkpt lat="36.559070" lon="-118.787570">
        <ele>1674.336</ele>
        <time>2018-12-27T17:52:00Z</time>
      </trkpt>
      <trkpt lat="36.559090" lon="-118.787600">
        <ele>1674.117</ele>
        <time>2018-12-27T17:52:20Z</time>
      </trkpt>
      <trkpt lat="36.559110" lon="-118.787630">
        <ele>1673.818</ele>
        <time>2018-12-27T17:52:40Z</time>
      </trkpt>
      <trkpt lat="36.559120" lon="-118.787660">
        <ele>1673.508</ele>
        <time>2018-12-27T17:53:00Z</time>
      </trkpt>
      <trkpt lat="36.559130" lon="-118.787690">
        <ele>1673.196</ele>
        <time>2018-12-27T17:53:20Z</time>
      </trkpt>
      <trkpt lat="36.559130" lon="-118.787730">
        <ele>1672.754</ele>
        <time>2018-12-27T17:53:40Z</time>
      </trkpt>
      <trkpt lat="36.559130" lon="-118.787770">
        <ele>1672.259</ele>
        <time>2018-12-27T17:54:00Z</time>
      </trkpt>
      <trkpt lat="36.559140" lon="-118.787830">
        <ele>1671.559</ele>
        <time>2018-12-27T17:54:20Z</time>
      </trkpt>
      <trkpt lat="36.559140" lon="-118.788050">
        <ele>1669.713</ele>
        <time>2018-12-27T17:54:40Z</time>
      </trkpt>
      <trkpt lat="36.559140" lon="-118.788080">
        <ele>1669.666</ele>
        <time>2018-12-27T17:55:00Z</time>
      </trkpt>
      <trkpt lat="36.559150" lon="-118.788110">
        <ele>1669.157</ele>
        <time>2018-12-27T17:55:20Z</time>
      </trkpt>
      <trkpt lat="36.559150" lon="-118.788140">
        <ele>1669.040</ele>
        <time>2018-12-27T17:55:40Z</time>
      </trkpt>
      <trkpt lat="36.559160" lon="-118.788170">
        <ele>1668.569</ele>
        <time>2018-12-27T17:56:00Z</time>
      </trkpt>
      <trkpt lat="36.559180" lon="-118.788230">
        <ele>1667.704</ele>
        <time>2018-12-27T17:56:20Z</time>
      </trkpt>
      <trkpt lat="36.559260" lon="-118.788360">
        <ele>1665.424</ele>
        <time>2018-12-27T17:56:40Z</time>
      </trkpt>
      <trkpt lat="36.559280" lon="-118.788390">
        <ele>1664.808</ele>
        <time>2018-12-27T17:57:00Z</time>
      </trkpt>
      <trkpt lat="36.559300" lon="-118.788450">
        <ele>1664.359</ele>
        <time>2018-12-27T17:57:20Z</time>
      </trkpt>
      <trkpt lat="36.559310" lon="-118.788480">
        <ele>1663.967</ele>
        <time>2018-12-27T17:57:40Z</time>
      </trkpt>
      <trkpt lat="36.559320" lon="-118.788510">
        <ele>1663.322</ele>
        <time>2018-12-27T17:58:00Z</time>
      </trkpt>
      <trkpt lat="36.559330" lon="-118.788540">
        <ele>1662.882</ele>
        <time>2018-12-27T17:58:20Z</time>
      </trkpt>
      <trkpt lat="36.559330" lon="-118.788560">
        <ele>1662.686</ele>
        <time>2018-12-27T17:58:40Z</time>
      </trkpt>
      <trkpt lat="36.559340" lon="-118.788600">
        <ele>1662.029</ele>
        <time>2018-12-27T17:59:00Z</time>
      </trkpt>
      <trkpt lat="36.559340" lon="-118.788620">
        <ele>1661.970</ele>
        <time>2018-12-27T17:59:20Z</time>
      </trkpt>
      <trkpt lat="36.559340" lon="-118.788640">
        <ele>1661.883</ele>
        <time>2018-12-27T17:59:40Z</time>
      </trkpt>
      <trkpt lat="36.559330" lon="-118.788670">
        <ele>1661.968</ele>
        <time>2018-12-27T18:00:00Z</time>
      </trkpt>
      <trkpt lat="36.559320" lon="-118.788700">
        <ele>1661.942</ele>
        <time>2018-12-27T18:00:20Z</time>
      </trkpt>
      <trkpt lat="36.559310" lon="-118.788740">
        <ele>1661.926</ele>
        <time>2018-12-27T18:00:40Z</time>
      </trkpt>
      <trkpt lat="36.559280" lon="-118.788790">
        <ele>1661.508</ele>
        <time>2018-12-27T18:01:00Z</time>
      </trkpt>
      <trkpt lat="36.559250" lon="-118.788840">
        <ele>1660.999</ele>
        <time>2018-12-27T18:01:20Z</time>
      </trkpt>
      <trkpt lat="36.559220" lon="-118.788880">
        <ele>1660.517</ele>
        <time>2018-12-27T18:01:40Z</time>
      </trkpt>
      <trkpt lat="36.559200" lon="-118.788910">
        <ele>1660.252</ele>
        <time>2018-12-27T18:02:00Z</time>
      </trkpt>
      <trkpt lat="36.559200" lon="-118.788920">
        <ele>1660.042</ele>
        <time>2018-12-27T18:02:20Z</time>
      </trkpt>
      <trkpt lat="36.559160" lon="-118.788950">
        <ele>1659.836</ele>
        <time>2018-12-27T18:02:40Z</time>
      </trkpt>
      <trkpt lat="36.559130" lon="-118.788970">
        <ele>1659.849</ele>
        <time>2018-12-27T18:03:00Z</time>
      </trkpt>
      <trkpt lat="36.559110" lon="-118.788990">
        <ele>1659.640</ele>
        <time>2018-12-27T18:03:20Z</time>
      </trkpt>
      <trkpt lat="36.559080" lon="-118.789010">
        <ele>1659.593</ele>
        <time>2018-12-27T18:03:40Z</time>
      </trkpt>
      <trkpt lat="36.559050" lon="-118.789020">
        <ele>1659.674</ele>
        <time>2018-12-27T18:04:00Z</time>
      </trkpt>
      <trkpt lat="36.559030" lon="-118.789030">
        <ele>1659.656</ele>
        <time>2018-12-27T18:04:20Z</time>
      </trkpt>
      <trkpt lat="36.559010" lon="-118.789030">
        <ele>1659.521</ele>
        <time>2018-12-27T18:04:40Z</time>
      </trkpt>
      <trkpt lat="36.558990" lon="-118.789030">
        <ele>1659.408</ele>
        <time>2018-12-27T18:05:00Z</time>
      </trkpt>
      <trkpt lat="36.558970" lon="-118.789030">
        <ele>1659.410</ele>
        <time>2018-12-27T18:05:20Z</time>
      </trkpt>
      <trkpt lat="36.558950" lon="-118.789020">
        <ele>1659.558</ele>
        <time>2018-12-27T18:05:40Z</time>
      </trkpt>
      <trkpt lat="36.558930" lon="-118.789020">
        <ele>1659.453</ele>
        <time>2018-12-27T18:06:00Z</time>
      </trkpt>
      <trkpt lat="36.558900" lon="-118.789000">
        <ele>1659.533</ele>
        <time>2018-12-27T18:06:20Z</time>
      </trkpt>
      <trkpt lat="36.558880" lon="-118.788980">
        <ele>1659.767</ele>
        <time>2018-12-27T18:06:40Z</time>
      </trkpt>
      <trkpt lat="36.558860" lon="-118.788960">
        <ele>1659.840</ele>
        <time>2018-12-27T18:07:00Z</time>
      </trkpt>
      <trkpt lat="36.558840" lon="-118.788930">
        <ele>1660.141</ele>
        <time>2018-12-27T18:07:20Z</time>
      </trkpt>
      <trkpt lat="36.558830" lon="-118.788900">
        <ele>1660.484</ele>
        <time>2018-12-27T18:07:40Z</time>
      </trkpt>
      <trkpt lat="36.558820" lon="-118.788870">
        <ele>1660.721</ele>
        <time>2018-12-27T18:08:00Z</time>
      </trkpt>
      <trkpt lat="36.558810" lon="-118.788840">
        <ele>1661.041</ele>
        <time>2018-12-27T18:08:20Z</time>
      </trkpt>
      <trkpt lat="36.558800" lon="-118.788810">
        <ele>1661.205</ele>
        <time>2018-12-27T18:08:40Z</time>
      </trkpt>
      <trkpt lat="36.558770" lon="-118.788640">
        <ele>1661.308</ele>
        <time>2018-12-27T18:09:00Z</time>
      </trkpt>
      <trkpt lat="36.558760" lon="-118.788590">
        <ele>1661.025</ele>
        <time>2018-12-27T18:09:20Z</time>
      </trkpt>
      <trkpt lat="36.558740" lon="-118.788550">
        <ele>1660.313</ele>
        <time>2018-12-27T18:09:40Z</time>
      </trkpt>
      <trkpt lat="36.558730" lon="-118.788530">
        <ele>1659.948</ele>
        <time>2018-12-27T18:10:00Z</time>
      </trkpt>
      <trkpt lat="36.558720" lon="-118.788510">
        <ele>1659.598</ele>
        <time>2018-12-27T18:10:20Z</time>
      </trkpt>
      <trkpt lat="36.558700" lon="-118.788480">
        <ele>1658.872</ele>
        <time>2018-12-27T18:10:40Z</time>
      </trkpt>
      <trkpt lat="36.558670" lon="-118.788420">
        <ele>1659.075</ele>
        <time>2018-12-27T18:11:00Z</time>
      </trkpt>
      <trkpt lat="36.558550" lon="-118.788260">
        <ele>1657.266</ele>
        <time>2018-12-27T18:11:20Z</time>
      </trkpt>
      <trkpt lat="36.558430" lon="-118.788070">
        <ele>1654.539</ele>
        <time>2018-12-27T18:11:40Z</time>
      </trkpt>
      <trkpt lat="36.558390" lon="-118.788020">
        <ele>1653.335</ele>
        <time>2018-12-27T18:12:00Z</time>
      </trkpt>
      <trkpt lat="36.558370" lon="-118.788000">
        <ele>1652.686</ele>
        <time>2018-12-27T18:12:20Z</time>
      </trkpt>
      <trkpt lat="36.558340" lon="-118.787980">
        <ele>1651.414</ele>
        <time>2018-12-27T18:12:40Z</time>
      </trkpt>
      <trkpt lat="36.558330" lon="-118.787970">
        <ele>1651.008</ele>
        <time>2018-12-27T18:13:00Z</time>
      </trkpt>
      <trkpt lat="36.558320" lon="-118.787960">
        <ele>1650.646</ele>
        <time>2018-12-27T18:13:20Z</time>
      </trkpt>
      <trkpt lat="36.558310" lon="-118.787960">
        <ele>1650.174</ele>
        <time>2018-12-27T18:13:40Z</time>
      </trkpt>
      <trkpt lat="36.558290" lon="-118.787940">
        <ele>1649.329</ele>
        <time>2018-12-27T18:14:00Z</time>
      </trkpt>
      <trkpt lat="36.558270" lon="-118.787930">
        <ele>1648.319</ele>
        <time>2018-12-27T18:14:20Z</time>
      </trkpt>
      <trkpt lat="36.558240" lon="-118.787930">
        <ele>1646.893</ele>
        <time>2018-12-27T18:14:40Z</time>
      </trkpt>
      <trkpt lat="36.558220" lon="-118.787920">
        <ele>1645.866</ele>
        <time>2018-12-27T18:15:00Z</time>
      </trkpt>
      <trkpt lat="36.558190" lon="-118.787920">
        <ele>1644.577</ele>
        <time>2018-12-27T18:15:20Z</time>
      </trkpt>
      <trkpt lat="36.558160" lon="-118.787920">
        <ele>1644.190</ele>
        <time>2018-12-27T18:15:40Z</time>
      </trkpt>
      <trkpt lat="36.558130" lon="-118.787920">
        <ele>1643.779</ele>
        <time>2018-12-27T18:16:00Z</time>
      </trkpt>
      <trkpt lat="36.558080" lon="-118.787940">
        <ele>1642.705</ele>
        <time>2018-12-27T18:16:20Z</time>
      </trkpt>
      <trkpt lat="36.557940" lon="-118.787990">
        <ele>1639.325</ele>
        <time>2018-12-27T18:16:40Z</time>
      </trkpt>
      <trkpt lat="36.557890" lon="-118.788000">
        <ele>1638.608</ele>
        <time>2018-12-27T18:17:00Z</time>
      </trkpt>
      <trkpt lat="36.557850" lon="-118.788010">
        <ele>1638.470</ele>
        <time>2018-12-27T18:17:20Z</time>
      </trkpt>
      <trkpt lat="36.557810" lon="-118.788020">
        <ele>1638.228</ele>
        <time>2018-12-27T18:17:40Z</time>
      </trkpt>
      <trkpt lat="36.557770" lon="-118.788020">
        <ele>1638.333</ele>
        <time>2018-12-27T18:18:00Z</time>
      </trkpt>
      <trkpt lat="36.557730" lon="-118.788020">
        <ele>1638.523</ele>
        <time>2018-12-27T18:18:20Z</time>
      </trkpt>
      <trkpt lat="36.557680" lon="-118.788010">
        <ele>1638.897</ele>
        <time>2018-12-27T18:18:40Z</time>
      </trkpt>
      <trkpt lat="36.557630" lon="-118.788010">
        <ele>1638.920</ele>
        <time>2018-12-27T18:19:00Z</time>
      </trkpt>
      <trkpt lat="36.557550" lon="-118.788000">
        <ele>1639.261</ele>
        <time>2018-12-27T18:19:20Z</time>
      </trkpt>
      <trkpt lat="36.557520" lon="-118.787990">
        <ele>1639.574</ele>
        <time>2018-12-27T18:19:40Z</time>
      </trkpt>
      <trkpt lat="36.557470" lon="-118.787990">
        <ele>1639.528</ele>
        <time>2018-12-27T18:20:00Z</time>
      </trkpt>
      <trkpt lat="36.557380" lon="-118.788000">
        <ele>1639.189</ele>
        <time>2018-12-27T18:20:20Z</time>
      </trkpt>
      <trkpt lat="36.557310" lon="-118.788010">
        <ele>1638.817</ele>
        <time>2018-12-27T18:20:40Z</time>
      </trkpt>
      <trkpt lat="36.557250" lon="-118.788020">
        <ele>1638.608</ele>
        <time>2018-12-27T18:21:00Z</time>
      </trkpt>
      <trkpt lat="36.557220" lon="-118.788020">
        <ele>1638.615</ele>
        <time>2018-12-27T18:21:20Z</time>
      </trkpt>
      <trkpt lat="36.557190" lon="-118.788020">
        <ele>1638.643</ele>
        <time>2018-12-27T18:21:40Z</time>
      </trkpt>
      <trkpt lat="36.557160" lon="-118.788020">
        <ele>1638.628</ele>
        <time>2018-12-27T18:22:00Z</time>
      </trkpt>
      <trkpt lat="36.557130" lon="-118.788020">
        <ele>1638.748</ele>
        <time>2018-12-27T18:22:20Z</time>
      </trkpt>
      <trkpt lat="36.557100" lon="-118.788010">
        <ele>1638.952</ele>
        <time>2018-12-27T18:22:40Z</time>
      </trkpt>
      <trkpt lat="36.557070" lon="-118.788000">
        <ele>1639.065</ele>
        <time>2018-12-27T18:23:00Z</time>
      </trkpt>
      <trkpt lat="36.557040" lon="-118.787980">
        <ele>1639.246</ele>
        <time>2018-12-27T18:23:20Z</time>
      </trkpt>
      <trkpt lat="36.557000" lon="-118.787970">
        <ele>1639.169</ele>
        <time>2018-12-27T18:23:40Z</time>
      </trkpt>
      <trkpt lat="36.556980" lon="-118.787950">
        <ele>1639.443</ele>
        <time>2018-12-27T18:24:00Z</time>
      </trkpt>
      <trkpt lat="36.556960" lon="-118.787940">
        <ele>1639.564</ele>
        <time>2018-12-27T18:24:20Z</time>
      </trkpt>
      <trkpt lat="36.556940" lon="-118.787920">
        <ele>1639.810</ele>
        <time>2018-12-27T18:24:40Z</time>
      </trkpt>
      <trkpt lat="36.556870" lon="-118.787850">
        <ele>1640.808</ele>
        <time>2018-12-27T18:25:00Z</time>
      </trkpt>
      <trkpt lat="36.556840" lon="-118.787820">
        <ele>1641.147</ele>
        <time>2018-12-27T18:25:20Z</time>
      </trkpt>
      <trkpt lat="36.556820" lon="-118.787810">
        <ele>1641.115</ele>
        <time>2018-12-27T18:25:40Z</time>
      </trkpt>
      <trkpt lat="36.556800" lon="-118.787790">
        <ele>1641.280</ele>
        <time>2018-12-27T18:26:00Z</time>
      </trkpt>
      <trkpt lat="36.556770" lon="-118.787770">
        <ele>1641.280</ele>
        <time>2018-12-27T18:26:20Z</time>
      </trkpt>
      <trkpt lat="36.556750" lon="-118.787760">
        <ele>1641.154</ele>
        <time>2018-12-27T18:26:40Z</time>
      </trkpt>
      <trkpt lat="36.556740" lon="-118.787750">
        <ele>1641.137</ele>
        <time>2018-12-27T18:27:00Z</time>
      </trkpt>
      <trkpt lat="36.556710" lon="-118.787740">
        <ele>1640.978</ele>
        <time>2018-12-27T18:27:20Z</time>
      </trkpt>
      <trkpt lat="36.556670" lon="-118.787720">
        <ele>1640.631</ele>
        <time>2018-12-27T18:27:40Z</time>
      </trkpt>
      <trkpt lat="36.556630" lon="-118.787710">
        <ele>1640.278</ele>
        <time>2018-12-27T18:28:00Z</time>
      </trkpt>
      <trkpt lat="36.556600" lon="-118.787700">
        <ele>1639.933</ele>
        <time>2018-12-27T18:28:20Z</time>
      </trkpt>
      <trkpt lat="36.556550" lon="-118.787700">
        <ele>1639.226</ele>
        <time>2018-12-27T18:28:40Z</time>
      </trkpt>
      <trkpt lat="36.556350" lon="-118.787680">
        <ele>1637.908</ele>
        <time>2018-12-27T18:29:00Z</time>
      </trkpt>
      <trkpt lat="36.556160" lon="-118.787660">
        <ele>1637.530</ele>
        <time>2018-12-27T18:29:20Z</time>
      </trkpt>
      <trkpt lat="36.556120" lon="-118.787650">
        <ele>1637.688</ele>
        <time>2018-12-27T18:29:40Z</time>
      </trkpt>
      <trkpt lat="36.556080" lon="-118.787640">
        <ele>1637.843</ele>
        <time>2018-12-27T18:30:00Z</time>
      </trkpt>
      <trkpt lat="36.556050" lon="-118.787630">
        <ele>1638.063</ele>
        <time>2018-12-27T18:30:20Z</time>
      </trkpt>
      <trkpt lat="36.556010" lon="-118.787600">
        <ele>1638.777</ele>
        <time>2018-12-27T18:30:40Z</time>
      </trkpt>
      <trkpt lat="36.555970" lon="-118.787580">
        <ele>1639.020</ele>
        <time>2018-12-27T18:31:00Z</time>
      </trkpt>
      <trkpt lat="36.555940" lon="-118.787570">
        <ele>1638.651</ele>
        <time>2018-12-27T18:31:20Z</time>
      </trkpt>
      <trkpt lat="36.555920" lon="-118.787560">
        <ele>1638.414</ele>
        <time>2018-12-27T18:31:40Z</time>
      </trkpt>
      <trkpt lat="36.555900" lon="-118.787530">
        <ele>1638.631</ele>
        <time>2018-12-27T18:32:00Z</time>
      </trkpt>
      <trkpt lat="36.555830" lon="-118.787470">
        <ele>1637.961</ele>
        <time>2018-12-27T18:32:20Z</time>
      </trkpt>
      <trkpt lat="36.555740" lon="-118.787400">
        <ele>1636.107</ele>
        <time>2018-12-27T18:32:40Z</time>
      </trkpt>
      <trkpt lat="36.555720" lon="-118.787380">
        <ele>1635.708</ele>
        <time>2018-12-27T18:33:00Z</time>
      </trkpt>
      <trkpt lat="36.555700" lon="-118.787370">
        <ele>1635.116</ele>
        <time>2018-12-27T18:33:20Z</time>
      </trkpt>
      <trkpt lat="36.555670" lon="-118.787360">
        <ele>1634.234</ele>
        <time>2018-12-27T18:33:40Z</time>
      </trkpt>
      <trkpt lat="36.555640" lon="-118.787350">
        <ele>1633.639</ele>
        <time>2018-12-27T18:34:00Z</time>
      </trkpt>
      <trkpt lat="36.555620" lon="-118.787350">
        <ele>1633.049</ele>
        <time>2018-12-27T18:34:20Z</time>
      </trkpt>
      <trkpt lat="36.555580" lon="-118.787350">
        <ele>1631.723</ele>
        <time>2018-12-27T18:34:40Z</time>
      </trkpt>
      <trkpt lat="36.555550" lon="-118.787360">
        <ele>1630.566</ele>
        <time>2018-12-27T18:35:00Z</time>
      </trkpt>
      <trkpt lat="36.555470" lon="-118.787370">
        <ele>1627.757</ele>
        <time>2018-12-27T18:35:20Z</time>
      </trkpt>
      <trkpt lat="36.555430" lon="-118.787380">
        <ele>1626.160</ele>
        <time>2018-12-27T18:35:40Z</time>
      </trkpt>
      <trkpt lat="36.555390" lon="-118.787390">
        <ele>1625.248</ele>
        <time>2018-12-27T18:36:00Z</time>
      </trkpt>
      <trkpt lat="36.555350" lon="-118.787390">
        <ele>1624.961</ele>
        <time>2018-12-27T18:36:20Z</time>
      </trkpt>
      <trkpt lat="36.555320" lon="-118.787390">
        <ele>1624.717</ele>
        <time>2018-12-27T18:36:40Z</time>
      </trkpt>
      <trkpt lat="36.555280" lon="-118.787380">
        <ele>1624.808</ele>
        <time>2018-12-27T18:37:00Z</time>
      </trkpt>
      <trkpt lat="36.555250" lon="-118.787380">
        <ele>1624.627</ele>
        <time>2018-12-27T18:37:20Z</time>
      </trkpt>
      <trkpt lat="36.555220" lon="-118.787370">
        <ele>1624.995</ele>
        <time>2018-12-27T18:37:40Z</time>
      </trkpt>
      <trkpt lat="36.555170" lon="-118.787350">
        <ele>1625.350</ele>
        <time>2018-12-27T18:38:00Z</time>
      </trkpt>
      <trkpt lat="36.554830" lon="-118.787240">
        <ele>1626.060</ele>
        <time>2018-12-27T18:38:20Z</time>
      </trkpt>
      <trkpt lat="36.554550" lon="-118.787160">
        <ele>1624.844</ele>
        <time>2018-12-27T18:38:40Z</time>
      </trkpt>
      <trkpt lat="36.554420" lon="-118.787140">
        <ele>1623.497</ele>
        <time>2018-12-27T18:39:00Z</time>
      </trkpt>
      <trkpt lat="36.554380" lon="-118.787130">
        <ele>1623.188</ele>
        <time>2018-12-27T18:39:20Z</time>
      </trkpt>
      <trkpt lat="36.554340" lon="-118.787110">
        <ele>1623.291</ele>
        <time>2018-12-27T18:39:40Z</time>
      </trkpt>
      <trkpt lat="36.554300" lon="-118.787100">
        <ele>1622.838</ele>
        <time>2018-12-27T18:40:00Z</time>
      </trkpt>
      <trkpt lat="36.554270" lon="-118.787080">
        <ele>1622.370</ele>
        <time>2018-12-27T18:40:20Z</time>
      </trkpt>
      <trkpt lat="36.554240" lon="-118.787050">
        <ele>1621.617</ele>
        <time>2018-12-27T18:40:40Z</time>
      </trkpt>
      <trkpt lat="36.554180" lon="-118.787000">
        <ele>1620.208</ele>
        <time>2018-12-27T18:41:00Z</time>
      </trkpt>
      <trkpt lat="36.554120" lon="-118.786950">
        <ele>1618.736</ele>
        <time>2018-12-27T18:41:20Z</time>
      </trkpt>
      <trkpt lat="36.554090" lon="-118.786930">
        <ele>1617.954</ele>
        <time>2018-12-27T18:41:40Z</time>
      </trkpt>
      <trkpt lat="36.554060" lon="-118.786910">
        <ele>1617.139</ele>
        <time>2018-12-27T18:42:00Z</time>
      </trkpt>
      <trkpt lat="36.554010" lon="-118.786880">
        <ele>1615.959</ele>
        <time>2018-12-27T18:42:20Z</time>
      </trkpt>
      <trkpt lat="36.553980" lon="-118.786870">
        <ele>1615.463</ele>
        <time>2018-12-27T18:42:40Z</time>
      </trkpt>
      <trkpt lat="36.553940" lon="-118.786860">
        <ele>1614.616</ele>
        <time>2018-12-27T18:43:00Z</time>
      </trkpt>
      <trkpt lat="36.553890" lon="-118.786840">
        <ele>1614.027</ele>
        <time>2018-12-27T18:43:20Z</time>
      </trkpt>
      <trkpt lat="36.553850" lon="-118.786840">
        <ele>1613.290</ele>
        <time>2018-12-27T18:43:40Z</time>
      </trkpt>
      <trkpt lat="36.553780" lon="-118.786830">
        <ele>1612.045</ele>
        <time>2018-12-27T18:44:00Z</time>
      </trkpt>
      <trkpt lat="36.553710" lon="-118.786820">
        <ele>1611.747</ele>
        <time>2018-12-27T18:44:20Z</time>
      </trkpt>
      <trkpt lat="36.553620" lon="-118.786810">
        <ele>1611.911</ele>
        <time>2018-12-27T18:44:40Z</time>
      </trkpt>
      <trkpt lat="36.553570" lon="-118.786800">
        <ele>1612.108</ele>
        <time>2018-12-27T18:45:00Z</time>
      </trkpt>
      <trkpt lat="36.553500" lon="-118.786780">
        <ele>1612.697</ele>
        <time>2018-12-27T18:45:20Z</time>
      </trkpt>
      <trkpt lat="36.553460" lon="-118.786770">
        <ele>1612.535</ele>
        <time>2018-12-27T18:45:40Z</time>
      </trkpt>
      <trkpt lat="36.553430" lon="-118.786760">
        <ele>1612.250</ele>
        <time>2018-12-27T18:46:00Z</time>
      </trkpt>
      <trkpt lat="36.553370" lon="-118.786740">
        <ele>1611.480</ele>
        <time>2018-12-27T18:46:20Z</time>
      </trkpt>
      <trkpt lat="36.553240" lon="-118.786670">
        <ele>1611.124</ele>
        <time>2018-12-27T18:46:40Z</time>
      </trkpt>
      <trkpt lat="36.553160" lon="-118.786640">
        <ele>1610.667</ele>
        <time>2018-12-27T18:47:00Z</time>
      </trkpt>
      <trkpt lat="36.553140" lon="-118.786630">
        <ele>1610.758</ele>
        <time>2018-12-27T18:47:20Z</time>
      </trkpt>
      <trkpt lat="36.553120" lon="-118.786620">
        <ele>1610.811</ele>
        <time>2018-12-27T18:47:40Z</time>
      </trkpt>
      <trkpt lat="36.553100" lon="-118.786620">
        <ele>1610.576</ele>
        <time>2018-12-27T18:48:00Z</time>
      </trkpt>
      <trkpt lat="36.553080" lon="-118.786620">
        <ele>1610.190</ele>
        <time>2018-12-27T18:48:20Z</time>
      </trkpt>
      <trkpt lat="36.553050" lon="-118.786620">
        <ele>1609.619</ele>
        <time>2018-12-27T18:48:40Z</time>
      </trkpt>
      <trkpt lat="36.553030" lon="-118.786620">
        <ele>1609.308</ele>
        <time>2018-12-27T18:49:00Z</time>
      </trkpt>
      <trkpt lat="36.553010" lon="-118.786620">
        <ele>1609.010</ele>
        <time>2018-12-27T18:49:20Z</time>
      </trkpt>
      <trkpt lat="36.552990" lon="-118.786620">
        <ele>1608.628</ele>
        <time>2018-12-27T18:49:40Z</time>
      </trkpt>
      <trkpt lat="36.552970" lon="-118.786630">
        <ele>1607.753</ele>
        <time>2018-12-27T18:50:00Z</time>
      </trkpt>
      <trkpt lat="36.552950" lon="-118.786640">
        <ele>1606.873</ele>
        <time>2018-12-27T18:50:20Z</time>
      </trkpt>
      <trkpt lat="36.552930" lon="-118.786650">
        <ele>1605.817</ele>
        <time>2018-12-27T18:50:40Z</time>
      </trkpt>
      <trkpt lat="36.552910" lon="-118.786660">
        <ele>1605.140</ele>
        <time>2018-12-27T18:51:00Z</time>
      </trkpt>
      <trkpt lat="36.552870" lon="-118.786690">
        <ele>1604.371</ele>
        <time>2018-12-27T18:51:20Z</time>
      </trkpt>
      <trkpt lat="36.552340" lon="-118.787180">
        <ele>1599.054</ele>
        <time>2018-12-27T18:51:40Z</time>
      </trkpt>
      <trkpt lat="36.552250" lon="-118.787260">
        <ele>1598.793</ele>
        <time>2018-12-27T18:52:00Z</time>
      </trkpt>
      <trkpt lat="36.552120" lon="-118.787360">
        <ele>1599.365</ele>
        <time>2018-12-27T18:52:20Z</time>
      </trkpt>
      <trkpt lat="36.552000" lon="-118.787460">
        <ele>1596.921</ele>
        <time>2018-12-27T18:52:40Z</time>
      </trkpt>
      <trkpt lat="36.551960" lon="-118.787490">
        <ele>1596.508</ele>
        <time>2018-12-27T18:53:00Z</time>
      </trkpt>
      <trkpt lat="36.551840" lon="-118.787570">
        <ele>1596.442</ele>
        <time>2018-12-27T18:53:20Z</time>
      </trkpt>
      <trkpt lat="36.551790" lon="-118.787590">
        <ele>1596.950</ele>
        <time>2018-12-27T18:53:40Z</time>
      </trkpt>
      <trkpt lat="36.551740" lon="-118.787620">
        <ele>1596.575</ele>
        <time>2018-12-27T18:54:00Z</time>
      </trkpt>
      <trkpt lat="36.551710" lon="-118.787630">
        <ele>1596.695</ele>
        <time>2018-12-27T18:54:20Z</time>
      </trkpt>
      <trkpt lat="36.551690" lon="-118.787640">
        <ele>1596.599</ele>
        <time>2018-12-27T18:54:40Z</time>
      </trkpt>
      <trkpt lat="36.551660" lon="-118.787640">
        <ele>1596.932</ele>
        <time>2018-12-27T18:55:00Z</time>
      </trkpt>
      <trkpt lat="36.551630" lon="-118.787650">
        <ele>1596.983</ele>
        <time>2018-12-27T18:55:20Z</time>
      </trkpt>
      <trkpt lat="36.551600" lon="-118.787650">
        <ele>1597.296</ele>
        <time>2018-12-27T18:55:40Z</time>
      </trkpt>
      <trkpt lat="36.551570" lon="-118.787650">
        <ele>1597.689</ele>
        <time>2018-12-27T18:56:00Z</time>
      </trkpt>
      <trkpt lat="36.551540" lon="-118.787650">
        <ele>1598.006</ele>
        <time>2018-12-27T18:56:20Z</time>
      </trkpt>
      <trkpt lat="36.551520" lon="-118.787640">
        <ele>1598.326</ele>
        <time>2018-12-27T18:56:40Z</time>
      </trkpt>
      <trkpt lat="36.551500" lon="-118.787640">
        <ele>1598.108</ele>
        <time>2018-12-27T18:57:00Z</time>
      </trkpt>
      <trkpt lat="36.551480" lon="-118.787630">
        <ele>1598.061</ele>
        <time>2018-12-27T18:57:20Z</time>
      </trkpt>
      <trkpt lat="36.551460" lon="-118.787620">
        <ele>1598.079</ele>
        <time>2018-12-27T18:57:40Z</time>
      </trkpt>
      <trkpt lat="36.551430" lon="-118.787600">
        <ele>1598.054</ele>
        <time>2018-12-27T18:58:00Z</time>
      </trkpt>
      <trkpt lat="36.551410" lon="-118.787590">
        <ele>1597.914</ele>
        <time>2018-12-27T18:58:20Z</time>
      </trkpt>
      <trkpt lat="36.551390" lon="-118.787570">
        <ele>1597.948</ele>
        <time>2018-12-27T18:58:40Z</time>
      </trkpt>
      <trkpt lat="36.551370" lon="-118.787550">
        <ele>1598.041</ele>
        <time>2018-12-27T18:59:00Z</time>
      </trkpt>
      <trkpt lat="36.551350" lon="-118.787530">
        <ele>1598.012</ele>
        <time>2018-12-27T18:59:20Z</time>
      </trkpt>
      <trkpt lat="36.551330" lon="-118.787510">
        <ele>1597.985</ele>
        <time>2018-12-27T18:59:40Z</time>
      </trkpt>
      <trkpt lat="36.551310" lon="-118.787490">
        <ele>1597.975</ele>
        <time>2018-12-27T19:00:00Z</time>
      </trkpt>
      <trkpt lat="36.551300" lon="-118.787460">
        <ele>1598.128</ele>
        <time>2018-12-27T19:00:20Z</time>
      </trkpt>
      <trkpt lat="36.551280" lon="-118.787430">
        <ele>1598.120</ele>
        <time>2018-12-27T19:00:40Z</time>
      </trkpt>
      <trkpt lat="36.551220" lon="-118.787320">
        <ele>1597.208</ele>
        <time>2018-12-27T19:01:00Z</time>
      </trkpt>
      <trkpt lat="36.551150" lon="-118.787180">
        <ele>1595.690</ele>
        <time>2018-12-27T19:01:20Z</time>
      </trkpt>
      <trkpt lat="36.551110" lon="-118.787100">
        <ele>1595.178</ele>
        <time>2018-12-27T19:01:40Z</time>
      </trkpt>
      <trkpt lat="36.551090" lon="-118.787060">
        <ele>1595.073</ele>
        <time>2018-12-27T19:02:00Z</time>
      </trkpt>
      <trkpt lat="36.551080" lon="-118.787020">
        <ele>1595.433</ele>
        <time>2018-12-27T19:02:20Z</time>
      </trkpt>
      <trkpt lat="36.551070" lon="-118.786980">
        <ele>1595.647</ele>
        <time>2018-12-27T19:02:40Z</time>
      </trkpt>
      <trkpt lat="36.551060" lon="-118.786940">
        <ele>1595.820</ele>
        <time>2018-12-27T19:03:00Z</time>
      </trkpt>
      <trkpt lat="36.551050" lon="-118.786910">
        <ele>1595.751</ele>
        <time>2018-12-27T19:03:20Z</time>
      </trkpt>
      <trkpt lat="36.551040" lon="-118.786880">
        <ele>1595.644</ele>
        <time>2018-12-27T19:03:40Z</time>
      </trkpt>
      <trkpt lat="36.551030" lon="-118.786840">
        <ele>1595.664</ele>
        <time>2018-12-27T19:04:00Z</time>
      </trkpt>
      <trkpt lat="36.551030" lon="-118.786780">
        <ele>1596.306</ele>
        <time>2018-12-27T19:04:20Z</time>
      </trkpt>
      <trkpt lat="36.551010" lon="-118.786660">
        <ele>1595.916</ele>
        <time>2018-12-27T19:04:40Z</time>
      </trkpt>
      <trkpt lat="36.550990" lon="-118.786590">
        <ele>1594.808</ele>
        <time>2018-12-27T19:05:00Z</time>
      </trkpt>
      <trkpt lat="36.550970" lon="-118.786540">
        <ele>1593.519</ele>
        <time>2018-12-27T19:05:20Z</time>
      </trkpt>
      <trkpt lat="36.550960" lon="-118.786500">
        <ele>1593.077</ele>
        <time>2018-12-27T19:05:40Z</time>
      </trkpt>
      <trkpt lat="36.550940" lon="-118.786470">
        <ele>1591.822</ele>
        <time>2018-12-27T19:06:00Z</time>
      </trkpt>
      <trkpt lat="36.550930" lon="-118.786440">
        <ele>1591.372</ele>
        <time>2018-12-27T19:06:20Z</time>
      </trkpt>
      <trkpt lat="36.550900" lon="-118.786400">
        <ele>1589.656</ele>
        <time>2018-12-27T19:06:40Z</time>
      </trkpt>
      <trkpt lat="36.550860" lon="-118.786360">
        <ele>1587.549</ele>
        <time>2018-12-27T19:07:00Z</time>
      </trkpt>
      <trkpt lat="36.550820" lon="-118.786320">
        <ele>1585.640</ele>
        <time>2018-12-27T19:07:20Z</time>
      </trkpt>
      <trkpt lat="36.550780" lon="-118.786280">
        <ele>1583.963</ele>
        <time>2018-12-27T19:07:40Z</time>
      </trkpt>
      <trkpt lat="36.550710" lon="-118.786240">
        <ele>1580.876</ele>
        <time>2018-12-27T19:08:00Z</time>
      </trkpt>
      <trkpt lat="36.550630" lon="-118.786190">
        <ele>1580.290</ele>
        <time>2018-12-27T19:08:20Z</time>
      </trkpt>
      <trkpt lat="36.550500" lon="-118.786130">
        <ele>1579.119</ele>
        <time>2018-12-27T19:08:40Z</time>
      </trkpt>
      <trkpt lat="36.550420" lon="-118.786090">
        <ele>1578.408</ele>
        <time>2018-12-27T19:09:00Z</time>
      </trkpt>
      <trkpt lat="36.550330" lon="-118.786050">
        <ele>1577.420</ele>
        <time>2018-12-27T19:09:20Z</time>
      </trkpt>
      <trkpt lat="36.550290" lon="-118.786020">
        <ele>1577.638</ele>
        <time>2018-12-27T19:09:40Z</time>
      </trkpt>
      <trkpt lat="36.550250" lon="-118.785990">
        <ele>1577.923</ele>
        <time>2018-12-27T19:10:00Z</time>
      </trkpt>
      <trkpt lat="36.550210" lon="-118.785950">
        <ele>1578.573</ele>
        <time>2018-12-27T19:10:20Z</time>
      </trkpt>
      <trkpt lat="36.550190" lon="-118.785920">
        <ele>1578.967</ele>
        <time>2018-12-27T19:10:40Z</time>
      </trkpt>
      <trkpt lat="36.550170" lon="-118.785890">
        <ele>1579.380</ele>
        <time>2018-12-27T19:11:00Z</time>
      </trkpt>
      <trkpt lat="36.550140" lon="-118.785850">
        <ele>1579.541</ele>
        <time>2018-12-27T19:11:20Z</time>
      </trkpt>
      <trkpt lat="36.550100" lon="-118.785760">
        <ele>1580.454</ele>
        <time>2018-12-27T19:11:40Z</time>
      </trkpt>
      <trkpt lat="36.550080" lon="-118.785700">
        <ele>1581.298</ele>
        <time>2018-12-27T19:12:00Z</time>
      </trkpt>
      <trkpt lat="36.550060" lon="-118.785640">
        <ele>1581.715</ele>
        <time>2018-12-27T19:12:20Z</time>
      </trkpt>
      <trkpt lat="36.550050" lon="-118.785550">
        <ele>1583.026</ele>
        <time>2018-12-27T19:12:40Z</time>
      </trkpt>
      <trkpt lat="36.550040" lon="-118.785480">
        <ele>1583.908</ele>
        <time>2018-12-27T19:13:00Z</time>
      </trkpt>
      <trkpt lat="36.550040" lon="-118.785400">
        <ele>1585.322</ele>
        <time>2018-12-27T19:13:20Z</time>
      </trkpt>
      <trkpt lat="36.550030" lon="-118.785320">
        <ele>1585.440</ele>
        <time>2018-12-27T19:13:40Z</time>
      </trkpt>
      <trkpt lat="36.550020" lon="-118.785250">
        <ele>1585.465</ele>
        <time>2018-12-27T19:14:00Z</time>
      </trkpt>
      <trkpt lat="36.550010" lon="-118.785220">
        <ele>1585.125</ele>
        <time>2018-12-27T19:14:20Z</time>
      </trkpt>
      <trkpt lat="36.550010" lon="-118.785190">
        <ele>1585.389</ele>
        <time>2018-12-27T19:14:40Z</time>
      </trkpt>
      <trkpt lat="36.549990" lon="-118.785140">
        <ele>1584.662</ele>
        <time>2018-12-27T19:15:00Z</time>
      </trkpt>
      <trkpt lat="36.549970" lon="-118.785100">
        <ele>1584.323</ele>
        <time>2018-12-27T19:15:20Z</time>
      </trkpt>
      <trkpt lat="36.549940" lon="-118.785050">
        <ele>1583.736</ele>
        <time>2018-12-27T19:15:40Z</time>
      </trkpt>
      <trkpt lat="36.549910" lon="-118.785010">
        <ele>1583.179</ele>
        <time>2018-12-27T19:16:00Z</time>
      </trkpt>
      <trkpt lat="36.549890" lon="-118.784990">
        <ele>1582.705</ele>
        <time>2018-12-27T19:16:20Z</time>
      </trkpt>
      <trkpt lat="36.549870" lon="-118.784960">
        <ele>1582.525</ele>
        <time>2018-12-27T19:16:40Z</time>
      </trkpt>
      <trkpt lat="36.549840" lon="-118.784920">
        <ele>1582.208</ele>
        <time>2018-12-27T19:17:00Z</time>
      </trkpt>
      <trkpt lat="36.549790" lon="-118.784860">
        <ele>1581.650</ele>
        <time>2018-12-27T19:17:20Z</time>
      </trkpt>
      <trkpt lat="36.549750" lon="-118.784810">
        <ele>1581.288</ele>
        <time>2018-12-27T19:17:40Z</time>
      </trkpt>
      <trkpt lat="36.549710" lon="-118.784750">
        <ele>1581.063</ele>
        <time>2018-12-27T19:18:00Z</time>
      </trkpt>
      <trkpt lat="36.549670" lon="-118.784690">
        <ele>1580.973</ele>
        <time>2018-12-27T19:18:20Z</time>
      </trkpt>
      <trkpt lat="36.549630" lon="-118.784610">
        <ele>1581.287</ele>
        <time>2018-12-27T19:18:40Z</time>
      </trkpt>
      <trkpt lat="36.549590" lon="-118.784540">
        <ele>1581.280</ele>
        <time>2018-12-27T19:19:00Z</time>
      </trkpt>
      <trkpt lat="36.549570" lon="-118.784510">
        <ele>1580.921</ele>
        <time>2018-12-27T19:19:20Z</time>
      </trkpt>
      <trkpt lat="36.549550" lon="-118.784490">
        <ele>1580.334</ele>
        <time>2018-12-27T19:19:40Z</time>
      </trkpt>
      <trkpt lat="36.549530" lon="-118.784470">
        <ele>1579.837</ele>
        <time>2018-12-27T19:20:00Z</time>
      </trkpt>
      <trkpt lat="36.549520" lon="-118.784460">
        <ele>1579.649</ele>
        <time>2018-12-27T19:20:20Z</time>
      </trkpt>
      <trkpt lat="36.549490" lon="-118.784440">
        <ele>1578.713</ele>
        <time>2018-12-27T19:20:40Z</time>
      </trkpt>
      <trkpt lat="36.549470" lon="-118.784430">
        <ele>1578.108</ele>
        <time>2018-12-27T19:21:00Z</time>
      </trkpt>
      <trkpt lat="36.549450" lon="-118.784430">
        <ele>1577.156</ele>
        <time>2018-12-27T19:21:20Z</time>
      </trkpt>
      <trkpt lat="36.549410" lon="-118.784430">
        <ele>1575.214</ele>
        <time>2018-12-27T19:21:40Z</time>
      </trkpt>
      <trkpt lat="36.549400" lon="-118.784430">
        <ele>1574.789</ele>
        <time>2018-12-27T19:22:00Z</time>
      </trkpt>
      <trkpt lat="36.549380" lon="-118.784430">
        <ele>1573.869</ele>
        <time>2018-12-27T19:22:20Z</time>
      </trkpt>
      <trkpt lat="36.549350" lon="-118.784440">
        <ele>1571.973</ele>
        <time>2018-12-27T19:22:40Z</time>
      </trkpt>
      <trkpt lat="36.549330" lon="-118.784450">
        <ele>1570.496</ele>
        <time>2018-12-27T19:23:00Z</time>
      </trkpt>
      <trkpt lat="36.549310" lon="-118.784460">
        <ele>1568.977</ele>
        <time>2018-12-27T19:23:20Z</time>
      </trkpt>
      <trkpt lat="36.549300" lon="-118.784480">
        <ele>1567.860</ele>
        <time>2018-12-27T19:23:40Z</time>
      </trkpt>
      <trkpt lat="36.549290" lon="-118.784490">
        <ele>1567.629</ele>
        <time>2018-12-27T19:24:00Z</time>
      </trkpt>
      <trkpt lat="36.549270" lon="-118.784520">
        <ele>1566.800</ele>
        <time>2018-12-27T19:24:20Z</time>
      </trkpt>
      <trkpt lat="36.549230" lon="-118.784570">
        <ele>1565.620</ele>
        <time>2018-12-27T19:24:40Z</time>
      </trkpt>
      <trkpt lat="36.549180" lon="-118.784670">
        <ele>1564.008</ele>
        <time>2018-12-27T19:25:00Z</time>
      </trkpt>
      <trkpt lat="36.549140" lon="-118.784740">
        <ele>1563.665</ele>
        <time>2018-12-27T19:25:20Z</time>
      </trkpt>
      <trkpt lat="36.549070" lon="-118.784870">
        <ele>1563.513</ele>
        <time>2018-12-27T19:25:40Z</time>
      </trkpt>
      <trkpt lat="36.549030" lon="-118.784960">
        <ele>1561.438</ele>
        <time>2018-12-27T19:26:00Z</time>
      </trkpt>
      <trkpt lat="36.548950" lon="-118.785140">
        <ele>1558.168</ele>
        <time>2018-12-27T19:26:20Z</time>
      </trkpt>
      <trkpt lat="36.548890" lon="-118.785280">
        <ele>1555.152</ele>
        <time>2018-12-27T19:26:40Z</time>
      </trkpt>
      <trkpt lat="36.548850" lon="-118.785380">
        <ele>1552.575</ele>
        <time>2018-12-27T19:27:00Z</time>
      </trkpt>
      <trkpt lat="36.548820" lon="-118.785430">
        <ele>1551.926</ele>
        <time>2018-12-27T19:27:20Z</time>
      </trkpt>
      <trkpt lat="36.548790" lon="-118.785490">
        <ele>1551.299</ele>
        <time>2018-12-27T19:27:40Z</time>
      </trkpt>
      <trkpt lat="36.548770" lon="-118.785510">
        <ele>1551.685</ele>
        <time>2018-12-27T19:28:00Z</time>
      </trkpt>
      <trkpt lat="36.548760" lon="-118.785530">
        <ele>1551.489</ele>
        <time>2018-12-27T19:28:20Z</time>
      </trkpt>
      <trkpt lat="36.548720" lon="-118.785560">
        <ele>1551.617</ele>
        <time>2018-12-27T19:28:40Z</time>
      </trkpt>
      <trkpt lat="36.548670" lon="-118.785600">
        <ele>1551.408</ele>
        <time>2018-12-27T19:29:00Z</time>
      </trkpt>
      <trkpt lat="36.548570" lon="-118.785660">
        <ele>1551.681</ele>
        <time>2018-12-27T19:29:20Z</time>
      </trkpt>
      <trkpt lat="36.548500" lon="-118.785710">
        <ele>1551.299</ele>
        <time>2018-12-27T19:29:40Z</time>
      </trkpt>
      <trkpt lat="36.548450" lon="-118.785740">
        <ele>1550.894</ele>
        <time>2018-12-27T19:30:00Z</time>
      </trkpt>
      <trkpt lat="36.548420" lon="-118.785760">
        <ele>1550.514</ele>
        <time>2018-12-27T19:30:20Z</time>
      </trkpt>
      <trkpt lat="36.548390" lon="-118.785780">
        <ele>1550.358</ele>
        <time>2018-12-27T19:30:40Z</time>
      </trkpt>
      <trkpt lat="36.548350" lon="-118.785810">
        <ele>1550.081</ele>
        <time>2018-12-27T19:31:00Z</time>
      </trkpt>
      <trkpt lat="36.548320" lon="-118.785830">
        <ele>1549.962</ele>
        <time>2018-12-27T19:31:20Z</time>
      </trkpt>
      <trkpt lat="36.548290" lon="-118.785860">
        <ele>1549.555</ele>
        <time>2018-12-27T19:31:40Z</time>
      </trkpt>
      <trkpt lat="36.548240" lon="-118.785890">
        <ele>1549.986</ele>
        <time>2018-12-27T19:32:00Z</time>
      </trkpt>
      <trkpt lat="36.548190" lon="-118.785910">
        <ele>1550.760</ele>
        <time>2018-12-27T19:32:20Z</time>
      </trkpt>
      <trkpt lat="36.548130" lon="-118.785940">
        <ele>1550.026</ele>
        <time>2018-12-27T19:32:40Z</time>
      </trkpt>
      <trkpt lat="36.548080" lon="-118.785960">
        <ele>1549.508</ele>
        <time>2018-12-27T19:33:00Z</time>
      </trkpt>
      <trkpt lat="36.548000" lon="-118.785980">
        <ele>1548.911</ele>
        <time>2018-12-27T19:33:20Z</time>
      </trkpt>
      <trkpt lat="36.547900" lon="-118.786000">
        <ele>1547.869</ele>
        <time>2018-12-27T19:33:40Z</time>
      </trkpt>
      <trkpt lat="36.547800" lon="-118.786020">
        <ele>1544.824</ele>
        <time>2018-12-27T19:34:00Z</time>
      </trkpt>
      <trkpt lat="36.547780" lon="-118.786030">
        <ele>1543.994</ele>
        <time>2018-12-27T19:34:20Z</time>
      </trkpt>
      <trkpt lat="36.547740" lon="-118.786030">
        <ele>1543.218</ele>
        <time>2018-12-27T19:34:40Z</time>
      </trkpt>
      <trkpt lat="36.547690" lon="-118.786050">
        <ele>1541.351</ele>
        <time>2018-12-27T19:35:00Z</time>
      </trkpt>
      <trkpt lat="36.547660" lon="-118.786060">
        <ele>1540.312</ele>
        <time>2018-12-27T19:35:20Z</time>
      </trkpt>
      <trkpt lat="36.547600" lon="-118.786110">
        <ele>1538.815</ele>
        <time>2018-12-27T19:35:40Z</time>
      </trkpt>
      <trkpt lat="36.547560" lon="-118.786140">
        <ele>1538.788</ele>
        <time>2018-12-27T19:36:00Z</time>
      </trkpt>
      <trkpt lat="36.547510" lon="-118.786190">
        <ele>1538.124</ele>
        <time>2018-12-27T19:36:20Z</time>
      </trkpt>
      <trkpt lat="36.547470" lon="-118.786230">
        <ele>1537.726</ele>
        <time>2018-12-27T19:36:40Z</time>
      </trkpt>
      <trkpt lat="36.547460" lon="-118.786240">
        <ele>1537.608</ele>
        <time>2018-12-27T19:37:00Z</time>
      </trkpt>
      <trkpt lat="36.547440" lon="-118.786270">
        <ele>1536.261</ele>
        <time>2018-12-27T19:37:20Z</time>
      </trkpt>
      <trkpt lat="36.547400" lon="-118.786300">
        <ele>1535.499</ele>
        <time>2018-12-27T19:37:40Z</time>
      </trkpt>
      <trkpt lat="36.547370" lon="-118.786330">
        <ele>1534.394</ele>
        <time>2018-12-27T19:38:00Z</time>
      </trkpt>
      <trkpt lat="36.547320" lon="-118.786370">
        <ele>1532.784</ele>
        <time>2018-12-27T19:38:20Z</time>
      </trkpt>
      <trkpt lat="36.547280" lon="-118.786390">
        <ele>1532.528</ele>
        <time>2018-12-27T19:38:40Z</time>
      </trkpt>
      <trkpt lat="36.547250" lon="-118.786410">
        <ele>1532.291</ele>
        <time>2018-12-27T19:39:00Z</time>
      </trkpt>
      <trkpt lat="36.547190" lon="-118.786420">
        <ele>1533.682</ele>
        <time>2018-12-27T19:39:20Z</time>
      </trkpt>
      <trkpt lat="36.547160" lon="-118.786420">
        <ele>1534.695</ele>
        <time>2018-12-27T19:39:40Z</time>
      </trkpt>
      <trkpt lat="36.547130" lon="-118.786410">
        <ele>1536.136</ele>
        <time>2018-12-27T19:40:00Z</time>
      </trkpt>
      <trkpt lat="36.547110" lon="-118.786400">
        <ele>1537.217</ele>
        <time>2018-12-27T19:40:20Z</time>
      </trkpt>
      <trkpt lat="36.547090" lon="-118.786390">
        <ele>1538.218</ele>
        <time>2018-12-27T19:40:40Z</time>
      </trkpt>
      <trkpt lat="36.547070" lon="-118.786380">
        <ele>1538.308</ele>
        <time>2018-12-27T19:41:00Z</time>
      </trkpt>
      <trkpt lat="36.547060" lon="-118.786360">
        <ele>1538.716</ele>
        <time>2018-12-27T19:41:20Z</time>
      </trkpt>
      <trkpt lat="36.547040" lon="-118.786340">
        <ele>1538.634</ele>
        <time>2018-12-27T19:41:40Z</time>
      </trkpt>
      <trkpt lat="36.547030" lon="-118.786310">
        <ele>1539.389</ele>
        <time>2018-12-27T19:42:00Z</time>
      </trkpt>
      <trkpt lat="36.546970" lon="-118.786170">
        <ele>1541.479</ele>
        <time>2018-12-27T19:42:20Z</time>
      </trkpt>
      <trkpt lat="36.546950" lon="-118.786110">
        <ele>1542.433</ele>
        <time>2018-12-27T19:42:40Z</time>
      </trkpt>
      <trkpt lat="36.546920" lon="-118.786040">
        <ele>1543.246</ele>
        <time>2018-12-27T19:43:00Z</time>
      </trkpt>
      <trkpt lat="36.546890" lon="-118.785990">
        <ele>1543.147</ele>
        <time>2018-12-27T19:43:20Z</time>
      </trkpt>
      <trkpt lat="36.546860" lon="-118.785940">
        <ele>1542.590</ele>
        <time>2018-12-27T19:43:40Z</time>
      </trkpt>
      <trkpt lat="36.546830" lon="-118.785900">
        <ele>1541.271</ele>
        <time>2018-12-27T19:44:00Z</time>
      </trkpt>
      <trkpt lat="36.546790" lon="-118.785840">
        <ele>1539.341</ele>
        <time>2018-12-27T19:44:20Z</time>
      </trkpt>
      <trkpt lat="36.546720" lon="-118.785750">
        <ele>1536.715</ele>
        <time>2018-12-27T19:44:40Z</time>
      </trkpt>
      <trkpt lat="36.546670" lon="-118.785670">
        <ele>1535.908</ele>
        <time>2018-12-27T19:45:00Z</time>
      </trkpt>
      <trkpt lat="36.546630" lon="-118.785610">
        <ele>1535.310</ele>
        <time>2018-12-27T19:45:20Z</time>
      </trkpt>
      <trkpt lat="36.546590" lon="-118.785550">
        <ele>1534.498</ele>
        <time>2018-12-27T19:45:40Z</time>
      </trkpt>
      <trkpt lat="36.546560" lon="-118.785520">
        <ele>1533.373</ele>
        <time>2018-12-27T19:46:00Z</time>
      </trkpt>
      <trkpt lat="36.546540" lon="-118.785490">
        <ele>1532.623</ele>
        <time>2018-12-27T19:46:20Z</time>
      </trkpt>
      <trkpt lat="36.546510" lon="-118.785470">
        <ele>1531.677</ele>
        <time>2018-12-27T19:46:40Z</time>
      </trkpt>
      <trkpt lat="36.546490" lon="-118.785450">
        <ele>1531.520</ele>
        <time>2018-12-27T19:47:00Z</time>
      </trkpt>
      <trkpt lat="36.546460" lon="-118.785440">
        <ele>1530.961</ele>
        <time>2018-12-27T19:47:20Z</time>
      </trkpt>
      <trkpt lat="36.546430" lon="-118.785430">
        <ele>1530.574</ele>
        <time>2018-12-27T19:47:40Z</time>
      </trkpt>
      <trkpt lat="36.546410" lon="-118.785430">
        <ele>1530.063</ele>
        <time>2018-12-27T19:48:00Z</time>
      </trkpt>
      <trkpt lat="36.546380" lon="-118.785430">
        <ele>1529.244</ele>
        <time>2018-12-27T19:48:20Z</time>
      </trkpt>
      <trkpt lat="36.546350" lon="-118.785430">
        <ele>1528.518</ele>
        <time>2018-12-27T19:48:40Z</time>
      </trkpt>
      <trkpt lat="36.546330" lon="-118.785440">
        <ele>1527.408</ele>
        <time>2018-12-27T19:49:00Z</time>
      </trkpt>
      <trkpt lat="36.546260" lon="-118.785480">
        <ele>1522.529</ele>
        <time>2018-12-27T19:49:20Z</time>
      </trkpt>
      <trkpt lat="36.546180" lon="-118.785520">
        <ele>1518.967</ele>
        <time>2018-12-27T19:49:40Z</time>
      </trkpt>
      <trkpt lat="36.546130" lon="-118.785550">
        <ele>1516.962</ele>
        <time>2018-12-27T19:50:00Z</time>
      </trkpt>
      <trkpt lat="36.546050" lon="-118.785580">
        <ele>1515.492</ele>
        <time>2018-12-27T19:50:20Z</time>
      </trkpt>
      <trkpt lat="36.545910" lon="-118.785610">
        <ele>1516.146</ele>
        <time>2018-12-27T19:50:40Z</time>
      </trkpt>
      <trkpt lat="36.545850" lon="-118.785630">
        <ele>1516.799</ele>
        <time>2018-12-27T19:51:00Z</time>
      </trkpt>
      <trkpt lat="36.545820" lon="-118.785640">
        <ele>1517.030</ele>
        <time>2018-12-27T19:51:20Z</time>
      </trkpt>
      <trkpt lat="36.545780" lon="-118.785650">
        <ele>1517.533</ele>
        <time>2018-12-27T19:51:40Z</time>
      </trkpt>
      <trkpt lat="36.545750" lon="-118.785670">
        <ele>1517.379</ele>
        <time>2018-12-27T19:52:00Z</time>
      </trkpt>
      <trkpt lat="36.545740" lon="-118.785670">
        <ele>1517.605</ele>
        <time>2018-12-27T19:52:20Z</time>
      </trkpt>
      <trkpt lat="36.545700" lon="-118.785700">
        <ele>1517.125</ele>
        <time>2018-12-27T19:52:40Z</time>
      </trkpt>
      <trkpt lat="36.545620" lon="-118.785750">
        <ele>1516.308</ele>
        <time>2018-12-27T19:53:00Z</time>
      </trkpt>
      <trkpt lat="36.545470" lon="-118.785830">
        <ele>1517.120</ele>
        <time>2018-12-27T19:53:20Z</time>
      </trkpt>
      <trkpt lat="36.545200" lon="-118.786000">
        <ele>1517.068</ele>
        <time>2018-12-27T19:53:40Z</time>
      </trkpt>
      <trkpt lat="36.545130" lon="-118.786040">
        <ele>1516.763</ele>
        <time>2018-12-27T19:54:00Z</time>
      </trkpt>
      <trkpt lat="36.545120" lon="-118.786050">
        <ele>1516.553</ele>
        <time>2018-12-27T19:54:20Z</time>
      </trkpt>
      <trkpt lat="36.545070" lon="-118.786090">
        <ele>1515.977</ele>
        <time>2018-12-27T19:54:40Z</time>
      </trkpt>
      <trkpt lat="36.544970" lon="-118.786190">
        <ele>1514.580</ele>
        <time>2018-12-27T19:55:00Z</time>
      </trkpt>
      <trkpt lat="36.544910" lon="-118.786250">
        <ele>1513.941</ele>
        <time>2018-12-27T19:55:20Z</time>
      </trkpt>
      <trkpt lat="36.544870" lon="-118.786290">
        <ele>1512.924</ele>
        <time>2018-12-27T19:55:40Z</time>
      </trkpt>
      <trkpt lat="36.544830" lon="-118.786330">
        <ele>1511.491</ele>
        <time>2018-12-27T19:56:00Z</time>
      </trkpt>
      <trkpt lat="36.544790" lon="-118.786360">
        <ele>1510.281</ele>
        <time>2018-12-27T19:56:20Z</time>
      </trkpt>
      <trkpt lat="36.544760" lon="-118.786370">
        <ele>1509.919</ele>
        <time>2018-12-27T19:56:40Z</time>
      </trkpt>
      <trkpt lat="36.544730" lon="-118.786390">
        <ele>1509.108</ele>
        <time>2018-12-27T19:57:00Z</time>
      </trkpt>
      <trkpt lat="36.544700" lon="-118.786390">
        <ele>1509.472</ele>
        <time>2018-12-27T19:57:20Z</time>
      </trkpt>
      <trkpt lat="36.544670" lon="-118.786390">
        <ele>1509.680</ele>
        <time>2018-12-27T19:57:40Z</time>
      </trkpt>
      <trkpt lat="36.544630" lon="-118.786380">
        <ele>1510.415</ele>
        <time>2018-12-27T19:58:00Z</time>
      </trkpt>
      <trkpt lat="36.544570" lon="-118.786360">
        <ele>1511.535</ele>
        <time>2018-12-27T19:58:20Z</time>
      </trkpt>
      <trkpt lat="36.544520" lon="-118.786330">
        <ele>1512.189</ele>
        <time>2018-12-27T19:58:40Z</time>
      </trkpt>
      <trkpt lat="36.544440" lon="-118.786280">
        <ele>1513.632</ele>
        <time>2018-12-27T19:59:00Z</time>
      </trkpt>
      <trkpt lat="36.544390" lon="-118.786250">
        <ele>1514.923</ele>
        <time>2018-12-27T19:59:20Z</time>
      </trkpt>
      <trkpt lat="36.544350" lon="-118.786230">
        <ele>1515.266</ele>
        <time>2018-12-27T19:59:40Z</time>
      </trkpt>
      <trkpt lat="36.544330" lon="-118.786220">
        <ele>1515.346</ele>
        <time>2018-12-27T20:00:00Z</time>
      </trkpt>
      <trkpt lat="36.544320" lon="-118.786220">
        <ele>1515.288</ele>
        <time>2018-12-27T20:00:20Z</time>
      </trkpt>
      <trkpt lat="36.544280" lon="-118.786210">
        <ele>1514.616</ele>
        <time>2018-12-27T20:00:40Z</time>
      </trkpt>
      <trkpt lat="36.544220" lon="-118.786200">
        <ele>1513.208</ele>
        <time>2018-12-27T20:01:00Z</time>
      </trkpt>
      <trkpt lat="36.544130" lon="-118.786190">
        <ele>1511.227</ele>
        <time>2018-12-27T20:01:20Z</time>
      </trkpt>
      <trkpt lat="36.544060" lon="-118.786190">
        <ele>1509.235</ele>
        <time>2018-12-27T20:01:40Z</time>
      </trkpt>
      <trkpt lat="36.544010" lon="-118.786190">
        <ele>1508.090</ele>
        <time>2018-12-27T20:02:00Z</time>
      </trkpt>
      <trkpt lat="36.543950" lon="-118.786170">
        <ele>1508.740</ele>
        <time>2018-12-27T20:02:20Z</time>
      </trkpt>
      <trkpt lat="36.543890" lon="-118.786160">
        <ele>1508.624</ele>
        <time>2018-12-27T20:02:40Z</time>
      </trkpt>
      <trkpt lat="36.543800" lon="-118.786120">
        <ele>1510.017</ele>
        <time>2018-12-27T20:03:00Z</time>
      </trkpt>
      <trkpt lat="36.543650" lon="-118.786030">
        <ele>1511.828</ele>
        <time>2018-12-27T20:03:20Z</time>
      </trkpt>
      <trkpt lat="36.543590" lon="-118.785990">
        <ele>1512.831</ele>
        <time>2018-12-27T20:03:40Z</time>
      </trkpt>
      <trkpt lat="36.543540" lon="-118.785970">
        <ele>1512.922</ele>
        <time>2018-12-27T20:04:00Z</time>
      </trkpt>
      <trkpt lat="36.543500" lon="-118.785950">
        <ele>1512.862</ele>
        <time>2018-12-27T20:04:20Z</time>
      </trkpt>
      <trkpt lat="36.543470" lon="-118.785950">
        <ele>1511.908</ele>
        <time>2018-12-27T20:04:40Z</time>
      </trkpt>
      <trkpt lat="36.543400" lon="-118.785940">
        <ele>1509.208</ele>
        <time>2018-12-27T20:05:00Z</time>
      </trkpt>
      <trkpt lat="36.543330" lon="-118.785930">
        <ele>1506.685</ele>
        <time>2018-12-27T20:05:20Z</time>
      </trkpt>
      <trkpt lat="36.543260" lon="-118.785940">
        <ele>1502.893</ele>
        <time>2018-12-27T20:05:40Z</time>
      </trkpt>
      <trkpt lat="36.543210" lon="-118.785940">
        <ele>1500.558</ele>
        <time>2018-12-27T20:06:00Z</time>
      </trkpt>
      <trkpt lat="36.543160" lon="-118.785950">
        <ele>1499.988</ele>
        <time>2018-12-27T20:06:20Z</time>
      </trkpt>
      <trkpt lat="36.543080" lon="-118.785970">
        <ele>1500.692</ele>
        <time>2018-12-27T20:06:40Z</time>
      </trkpt>
      <trkpt lat="36.542990" lon="-118.786010">
        <ele>1499.795</ele>
        <time>2018-12-27T20:07:00Z</time>
      </trkpt>
      <trkpt lat="36.542980" lon="-118.786010">
        <ele>1500.066</ele>
        <time>2018-12-27T20:07:20Z</time>
      </trkpt>
      <trkpt lat="36.542880" lon="-118.786060">
        <ele>1498.729</ele>
        <time>2018-12-27T20:07:40Z</time>
      </trkpt>
      <trkpt lat="36.542740" lon="-118.786140">
        <ele>1497.073</ele>
        <time>2018-12-27T20:08:00Z</time>
      </trkpt>
      <trkpt lat="36.542640" lon="-118.786200">
        <ele>1496.885</ele>
        <time>2018-12-27T20:08:20Z</time>
      </trkpt>
      <trkpt lat="36.542560" lon="-118.786260">
        <ele>1495.213</ele>
        <time>2018-12-27T20:08:40Z</time>
      </trkpt>
      <trkpt lat="36.542500" lon="-118.786310">
        <ele>1493.708</ele>
        <time>2018-12-27T20:09:00Z</time>
      </trkpt>
      <trkpt lat="36.542450" lon="-118.786360">
        <ele>1493.040</ele>
        <time>2018-12-27T20:09:20Z</time>
      </trkpt>
      <trkpt lat="36.542420" lon="-118.786400">
        <ele>1492.838</ele>
        <time>2018-12-27T20:09:40Z</time>
      </trkpt>
      <trkpt lat="36.542360" lon="-118.786480">
        <ele>1493.913</ele>
        <time>2018-12-27T20:10:00Z</time>
      </trkpt>
      <trkpt lat="36.542290" lon="-118.786570">
        <ele>1492.123</ele>
        <time>2018-12-27T20:10:20Z</time>
      </trkpt>
      <trkpt lat="36.542260" lon="-118.786600">
        <ele>1491.747</ele>
        <time>2018-12-27T20:10:40Z</time>
      </trkpt>
      <trkpt lat="36.542240" lon="-118.786620">
        <ele>1491.530</ele>
        <time>2018-12-27T20:11:00Z</time>
      </trkpt>
      <trkpt lat="36.542230" lon="-118.786630">
        <ele>1491.471</ele>
        <time>2018-12-27T20:11:20Z</time>
      </trkpt>
      <trkpt lat="36.542210" lon="-118.786640">
        <ele>1491.454</ele>
        <time>2018-12-27T20:11:40Z</time>
      </trkpt>
      <trkpt lat="36.542180" lon="-118.786660">
        <ele>1491.452</ele>
        <time>2018-12-27T20:12:00Z</time>
      </trkpt>
      <trkpt lat="36.542170" lon="-118.786660">
        <ele>1491.553</ele>
        <time>2018-12-27T20:12:20Z</time>
      </trkpt>
      <trkpt lat="36.542150" lon="-118.786670">
        <ele>1491.608</ele>
        <time>2018-12-27T20:12:40Z</time>
      </trkpt>
      <trkpt lat="36.542130" lon="-118.786670">
        <ele>1491.908</ele>
        <time>2018-12-27T20:13:00Z</time>
      </trkpt>
      <trkpt lat="36.542120" lon="-118.786670">
        <ele>1492.118</ele>
        <time>2018-12-27T20:13:20Z</time>
      </trkpt>
      <trkpt lat="36.542100" lon="-118.786670">
        <ele>1492.466</ele>
        <time>2018-12-27T20:13:40Z</time>
      </trkpt>
      <trkpt lat="36.542090" lon="-118.786670">
        <ele>1492.571</ele>
        <time>2018-12-27T20:14:00Z</time>
      </trkpt>
      <trkpt lat="36.542080" lon="-118.786670">
        <ele>1492.521</ele>
        <time>2018-12-27T20:14:20Z</time>
      </trkpt>
      <trkpt lat="36.542070" lon="-118.786660">
        <ele>1492.455</ele>
        <time>2018-12-27T20:14:40Z</time>
      </trkpt>
      <trkpt lat="36.542060" lon="-118.786660">
        <ele>1492.158</ele>
        <time>2018-12-27T20:15:00Z</time>
      </trkpt>
      <trkpt lat="36.542050" lon="-118.786650">
        <ele>1491.939</ele>
        <time>2018-12-27T20:15:20Z</time>
      </trkpt>
      <trkpt lat="36.542040" lon="-118.786640">
        <ele>1491.832</ele>
        <time>2018-12-27T20:15:40Z</time>
      </trkpt>
      <trkpt lat="36.542030" lon="-118.786640">
        <ele>1491.419</ele>
        <time>2018-12-27T20:16:00Z</time>
      </trkpt>
      <trkpt lat="36.542020" lon="-118.786620">
        <ele>1491.509</ele>
        <time>2018-12-27T20:16:20Z</time>
      </trkpt>
      <trkpt lat="36.542010" lon="-118.786610">
        <ele>1491.319</ele>
        <time>2018-12-27T20:16:40Z</time>
      </trkpt>
      <trkpt lat="36.542000" lon="-118.786590">
        <ele>1491.408</ele>
        <time>2018-12-27T20:17:00Z</time>
      </trkpt>
      <trkpt lat="36.541960" lon="-118.786470">
        <ele>1492.554</ele>
        <time>2018-12-27T20:17:20Z</time>
      </trkpt>
      <trkpt lat="36.541950" lon="-118.786460">
        <ele>1492.422</ele>
        <time>2018-12-27T20:17:40Z</time>
      </trkpt>
      <trkpt lat="36.541890" lon="-118.786310">
        <ele>1493.477</ele>
        <time>2018-12-27T20:18:00Z</time>
      </trkpt>
      <trkpt lat="36.541860" lon="-118.786220">
        <ele>1494.127</ele>
        <time>2018-12-27T20:18:20Z</time>
      </trkpt>
      <trkpt lat="36.541830" lon="-118.786160">
        <ele>1494.091</ele>
        <time>2018-12-27T20:18:40Z</time>
      </trkpt>
      <trkpt lat="36.541790" lon="-118.786070">
        <ele>1493.394</ele>
        <time>2018-12-27T20:19:00Z</time>
      </trkpt>
      <trkpt lat="36.541720" lon="-118.785960">
        <ele>1490.565</ele>
        <time>2018-12-27T20:19:20Z</time>
      </trkpt>
      <trkpt lat="36.541690" lon="-118.785900">
        <ele>1490.218</ele>
        <time>2018-12-27T20:19:40Z</time>
      </trkpt>
      <trkpt lat="36.541630" lon="-118.785820">
        <ele>1488.525</ele>
        <time>2018-12-27T20:20:00Z</time>
      </trkpt>
      <trkpt lat="36.541600" lon="-118.785760">
        <ele>1488.426</ele>
        <time>2018-12-27T20:20:20Z</time>
      </trkpt>
      <trkpt lat="36.541590" lon="-118.785740">
        <ele>1488.408</ele>
        <time>2018-12-27T20:20:40Z</time>
      </trkpt>
      <trkpt lat="36.541590" lon="-118.785730">
        <ele>1488.708</ele>
        <time>2018-12-27T20:21:00Z</time>
      </trkpt>
      <trkpt lat="36.541580" lon="-118.785710">
        <ele>1488.765</ele>
        <time>2018-12-27T20:21:20Z</time>
      </trkpt>
      <trkpt lat="36.541570" lon="-118.785700">
        <ele>1488.423</ele>
        <time>2018-12-27T20:21:40Z</time>
      </trkpt>
      <trkpt lat="36.541570" lon="-118.785670">
        <ele>1488.918</ele>
        <time>2018-12-27T20:22:00Z</time>
      </trkpt>
      <trkpt lat="36.541560" lon="-118.785630">
        <ele>1488.918</ele>
        <time>2018-12-27T20:22:20Z</time>
      </trkpt>
      <trkpt lat="36.541560" lon="-118.785610">
        <ele>1489.242</ele>
        <time>2018-12-27T20:22:40Z</time>
      </trkpt>
      <trkpt lat="36.541560" lon="-118.785580">
        <ele>1489.735</ele>
        <time>2018-12-27T20:23:00Z</time>
      </trkpt>
      <trkpt lat="36.541560" lon="-118.785560">
        <ele>1490.156</ele>
        <time>2018-12-27T20:23:20Z</time>
      </trkpt>
      <trkpt lat="36.541560" lon="-118.785530">
        <ele>1490.679</ele>
        <time>2018-12-27T20:23:40Z</time>
      </trkpt>
      <trkpt lat="36.541570" lon="-118.785510">
        <ele>1491.533</ele>
        <time>2018-12-27T20:24:00Z</time>
      </trkpt>
      <trkpt lat="36.541580" lon="-118.785480">
        <ele>1492.523</ele>
        <time>2018-12-27T20:24:20Z</time>
      </trkpt>
      <trkpt lat="36.541590" lon="-118.785460">
        <ele>1493.315</ele>
        <time>2018-12-27T20:24:40Z</time>
      </trkpt>
      <trkpt lat="36.541610" lon="-118.785440">
        <ele>1494.608</ele>
        <time>2018-12-27T20:25:00Z</time>
      </trkpt>
      <trkpt lat="36.541630" lon="-118.785410">
        <ele>1495.786</ele>
        <time>2018-12-27T20:25:20Z</time>
      </trkpt>
      <trkpt lat="36.541650" lon="-118.785380">
        <ele>1495.754</ele>
        <time>2018-12-27T20:25:40Z</time>
      </trkpt>
      <trkpt lat="36.541670" lon="-118.785360">
        <ele>1496.119</ele>
        <time>2018-12-27T20:26:00Z</time>
      </trkpt>
      <trkpt lat="36.541700" lon="-118.785340">
        <ele>1496.879</ele>
        <time>2018-12-27T20:26:20Z</time>
      </trkpt>
      <trkpt lat="36.541740" lon="-118.785310">
        <ele>1497.753</ele>
        <time>2018-12-27T20:26:40Z</time>
      </trkpt>
      <trkpt lat="36.541770" lon="-118.785290">
        <ele>1498.366</ele>
        <time>2018-12-27T20:27:00Z</time>
      </trkpt>
      <trkpt lat="36.541810" lon="-118.785270">
        <ele>1499.337</ele>
        <time>2018-12-27T20:27:20Z</time>
      </trkpt>
      <trkpt lat="36.541850" lon="-118.785260">
        <ele>1499.480</ele>
        <time>2018-12-27T20:27:40Z</time>
      </trkpt>
      <trkpt lat="36.541900" lon="-118.785250">
        <ele>1499.653</ele>
        <time>2018-12-27T20:28:00Z</time>
      </trkpt>
      <trkpt lat="36.541980" lon="-118.785230">
        <ele>1499.304</ele>
        <time>2018-12-27T20:28:20Z</time>
      </trkpt>
      <trkpt lat="36.542070" lon="-118.785210">
        <ele>1498.514</ele>
        <time>2018-12-27T20:28:40Z</time>
      </trkpt>
      <trkpt lat="36.542100" lon="-118.785200">
        <ele>1498.708</ele>
        <time>2018-12-27T20:29:00Z</time>
      </trkpt>
      <trkpt lat="36.542140" lon="-118.785190">
        <ele>1500.078</ele>
        <time>2018-12-27T20:29:20Z</time>
      </trkpt>
      <trkpt lat="36.542160" lon="-118.785170">
        <ele>1499.566</ele>
        <time>2018-12-27T20:29:40Z</time>
      </trkpt>
      <trkpt lat="36.542190" lon="-118.785150">
        <ele>1499.541</ele>
        <time>2018-12-27T20:30:00Z</time>
      </trkpt>
      <trkpt lat="36.542230" lon="-118.785110">
        <ele>1498.851</ele>
        <time>2018-12-27T20:30:20Z</time>
      </trkpt>
      <trkpt lat="36.542270" lon="-118.785070">
        <ele>1498.055</ele>
        <time>2018-12-27T20:30:40Z</time>
      </trkpt>
      <trkpt lat="36.542310" lon="-118.785020">
        <ele>1496.078</ele>
        <time>2018-12-27T20:31:00Z</time>
      </trkpt>
      <trkpt lat="36.542370" lon="-118.784960">
        <ele>1493.889</ele>
        <time>2018-12-27T20:31:20Z</time>
      </trkpt>
      <trkpt lat="36.542440" lon="-118.784900">
        <ele>1492.652</ele>
        <time>2018-12-27T20:31:40Z</time>
      </trkpt>
      <trkpt lat="36.542460" lon="-118.784880">
        <ele>1492.117</ele>
        <time>2018-12-27T20:32:00Z</time>
      </trkpt>
      <trkpt lat="36.542540" lon="-118.784810">
        <ele>1492.487</ele>
        <time>2018-12-27T20:32:20Z</time>
      </trkpt>
      <trkpt lat="36.542600" lon="-118.784770">
        <ele>1493.115</ele>
        <time>2018-12-27T20:32:40Z</time>
      </trkpt>
      <trkpt lat="36.542630" lon="-118.784730">
        <ele>1492.108</ele>
        <time>2018-12-27T20:33:00Z</time>
      </trkpt>
      <trkpt lat="36.542660" lon="-118.784700">
        <ele>1491.884</ele>
        <time>2018-12-27T20:33:20Z</time>
      </trkpt>
      <trkpt lat="36.542690" lon="-118.784650">
        <ele>1490.622</ele>
        <time>2018-12-27T20:33:40Z</time>
      </trkpt>
      <trkpt lat="36.542710" lon="-118.784590">
        <ele>1488.467</ele>
        <time>2018-12-27T20:34:00Z</time>
      </trkpt>
      <trkpt lat="36.542730" lon="-118.784530">
        <ele>1487.847</ele>
        <time>2018-12-27T20:34:20Z</time>
      </trkpt>
      <trkpt lat="36.542730" lon="-118.784520">
        <ele>1487.591</ele>
        <time>2018-12-27T20:34:40Z</time>
      </trkpt>
      <trkpt lat="36.542740" lon="-118.784450">
        <ele>1486.384</ele>
        <time>2018-12-27T20:35:00Z</time>
      </trkpt>
      <trkpt lat="36.542740" lon="-118.784400">
        <ele>1485.085</ele>
        <time>2018-12-27T20:35:20Z</time>
      </trkpt>
      <trkpt lat="36.542740" lon="-118.784320">
        <ele>1482.888</ele>
        <time>2018-12-27T20:35:40Z</time>
      </trkpt>
      <trkpt lat="36.542720" lon="-118.784220">
        <ele>1480.298</ele>
        <time>2018-12-27T20:36:00Z</time>
      </trkpt>
      <trkpt lat="36.542700" lon="-118.784110">
        <ele>1477.515</ele>
        <time>2018-12-27T20:36:20Z</time>
      </trkpt>
      <trkpt lat="36.542670" lon="-118.783980">
        <ele>1474.126</ele>
        <time>2018-12-27T20:36:40Z</time>
      </trkpt>
      <trkpt lat="36.542610" lon="-118.783710">
        <ele>1468.908</ele>
        <time>2018-12-27T20:37:00Z</time>
      </trkpt>
      <trkpt lat="36.542600" lon="-118.783660">
        <ele>1468.452</ele>
        <time>2018-12-27T20:37:20Z</time>
      </trkpt>
      <trkpt lat="36.542600" lon="-118.783630">
        <ele>1468.540</ele>
        <time>2018-12-27T20:37:40Z</time>
      </trkpt>
      <trkpt lat="36.542600" lon="-118.783590">
        <ele>1468.655</ele>
        <time>2018-12-27T20:38:00Z</time>
      </trkpt>
      <trkpt lat="36.542600" lon="-118.783560">
        <ele>1468.745</ele>
        <time>2018-12-27T20:38:20Z</time>
      </trkpt>
      <trkpt lat="36.542610" lon="-118.783540">
        <ele>1469.469</ele>
        <time>2018-12-27T20:38:40Z</time>
      </trkpt>
      <trkpt lat="36.542630" lon="-118.783520">
        <ele>1470.642</ele>
        <time>2018-12-27T20:39:00Z</time>
      </trkpt>
      <trkpt lat="36.542650" lon="-118.783500">
        <ele>1471.483</ele>
        <time>2018-12-27T20:39:20Z</time>
      </trkpt>
      <trkpt lat="36.542680" lon="-118.783480">
        <ele>1472.086</ele>
        <time>2018-12-27T20:39:40Z</time>
      </trkpt>
      <trkpt lat="36.542720" lon="-118.783470">
        <ele>1472.818</ele>
        <time>2018-12-27T20:40:00Z</time>
      </trkpt>
      <trkpt lat="36.542770" lon="-118.783460">
        <ele>1473.698</ele>
        <time>2018-12-27T20:40:20Z</time>
      </trkpt>
      <trkpt lat="36.542830" lon="-118.783470">
        <ele>1475.017</ele>
        <time>2018-12-27T20:40:40Z</time>
      </trkpt>
      <trkpt lat="36.542930" lon="-118.783500">
        <ele>1478.208</ele>
        <time>2018-12-27T20:41:00Z</time>
      </trkpt>
      <trkpt lat="36.543010" lon="-118.783520">
        <ele>1479.184</ele>
        <time>2018-12-27T20:41:20Z</time>
      </trkpt>
      <trkpt lat="36.543080" lon="-118.783540">
        <ele>1480.362</ele>
        <time>2018-12-27T20:41:40Z</time>
      </trkpt>
      <trkpt lat="36.543110" lon="-118.783540">
        <ele>1480.377</ele>
        <time>2018-12-27T20:42:00Z</time>
      </trkpt>
      <trkpt lat="36.543150" lon="-118.783540">
        <ele>1480.337</ele>
        <time>2018-12-27T20:42:20Z</time>
      </trkpt>
      <trkpt lat="36.543200" lon="-118.783540">
        <ele>1480.341</ele>
        <time>2018-12-27T20:42:40Z</time>
      </trkpt>
      <trkpt lat="36.543260" lon="-118.783510">
        <ele>1477.654</ele>
        <time>2018-12-27T20:43:00Z</time>
      </trkpt>
      <trkpt lat="36.543310" lon="-118.783470">
        <ele>1474.665</ele>
        <time>2018-12-27T20:43:20Z</time>
      </trkpt>
      <trkpt lat="36.543350" lon="-118.783430">
        <ele>1473.228</ele>
        <time>2018-12-27T20:43:40Z</time>
      </trkpt>
      <trkpt lat="36.543550" lon="-118.783260">
        <ele>1470.754</ele>
        <time>2018-12-27T20:44:00Z</time>
      </trkpt>
      <trkpt lat="36.543660" lon="-118.783180">
        <ele>1471.056</ele>
        <time>2018-12-27T20:44:20Z</time>
      </trkpt>
      <trkpt lat="36.543730" lon="-118.783130">
        <ele>1470.211</ele>
        <time>2018-12-27T20:44:40Z</time>
      </trkpt>
      <trkpt lat="36.543790" lon="-118.783100">
        <ele>1470.208</ele>
        <time>2018-12-27T20:45:00Z</time>
      </trkpt>
      <trkpt lat="36.543950" lon="-118.783030">
        <ele>1469.818</ele>
        <time>2018-12-27T20:45:20Z</time>
      </trkpt>
      <trkpt lat="36.544030" lon="-118.782980">
        <ele>1467.626</ele>
        <time>2018-12-27T20:45:40Z</time>
      </trkpt>
      <trkpt lat="36.544090" lon="-118.782940">
        <ele>1467.171</ele>
        <time>2018-12-27T20:46:00Z</time>
      </trkpt>
      <trkpt lat="36.544120" lon="-118.782900">
        <ele>1466.041</ele>
        <time>2018-12-27T20:46:20Z</time>
      </trkpt>
      <trkpt lat="36.544150" lon="-118.782860">
        <ele>1466.225</ele>
        <time>2018-12-27T20:46:40Z</time>
      </trkpt>
      <trkpt lat="36.544170" lon="-118.782820">
        <ele>1465.828</ele>
        <time>2018-12-27T20:47:00Z</time>
      </trkpt>
      <trkpt lat="36.544210" lon="-118.782700">
        <ele>1463.839</ele>
        <time>2018-12-27T20:47:20Z</time>
      </trkpt>
      <trkpt lat="36.544230" lon="-118.782640">
        <ele>1462.882</ele>
        <time>2018-12-27T20:47:40Z</time>
      </trkpt>
      <trkpt lat="36.544250" lon="-118.782580">
        <ele>1462.133</ele>
        <time>2018-12-27T20:48:00Z</time>
      </trkpt>
      <trkpt lat="36.544270" lon="-118.782530">
        <ele>1461.923</ele>
        <time>2018-12-27T20:48:20Z</time>
      </trkpt>
      <trkpt lat="36.544290" lon="-118.782490">
        <ele>1461.915</ele>
        <time>2018-12-27T20:48:40Z</time>
      </trkpt>
      <trkpt lat="36.544310" lon="-118.782470">
        <ele>1462.508</ele>
        <time>2018-12-27T20:49:00Z</time>
      </trkpt>
      <trkpt lat="36.544350" lon="-118.782420">
        <ele>1463.896</ele>
        <time>2018-12-27T20:49:20Z</time>
      </trkpt>
      <trkpt lat="36.544420" lon="-118.782340">
        <ele>1465.434</ele>
        <time>2018-12-27T20:49:40Z</time>
      </trkpt>
      <trkpt lat="36.544520" lon="-118.782260">
        <ele>1467.639</ele>
        <time>2018-12-27T20:50:00Z</time>
      </trkpt>
      <trkpt lat="36.544570" lon="-118.782220">
        <ele>1468.199</ele>
        <time>2018-12-27T20:50:20Z</time>
      </trkpt>
      <trkpt lat="36.544610" lon="-118.782180">
        <ele>1468.383</ele>
        <time>2018-12-27T20:50:40Z</time>
      </trkpt>
      <trkpt lat="36.544650" lon="-118.782120">
        <ele>1467.766</ele>
        <time>2018-12-27T20:51:00Z</time>
      </trkpt>
      <trkpt lat="36.544670" lon="-118.782090">
        <ele>1467.327</ele>
        <time>2018-12-27T20:51:20Z</time>
      </trkpt>
      <trkpt lat="36.544680" lon="-118.782060">
        <ele>1466.830</ele>
        <time>2018-12-27T20:51:40Z</time>
      </trkpt>
      <trkpt lat="36.544690" lon="-118.782020">
        <ele>1466.049</ele>
        <time>2018-12-27T20:52:00Z</time>
      </trkpt>
      <trkpt lat="36.544710" lon="-118.781970">
        <ele>1465.502</ele>
        <time>2018-12-27T20:52:20Z</time>
      </trkpt>
      <trkpt lat="36.544710" lon="-118.781910">
        <ele>1463.522</ele>
        <time>2018-12-27T20:52:40Z</time>
      </trkpt>
      <trkpt lat="36.544710" lon="-118.781850">
        <ele>1461.508</ele>
        <time>2018-12-27T20:53:00Z</time>
      </trkpt>
      <trkpt lat="36.544710" lon="-118.781790">
        <ele>1459.647</ele>
        <time>2018-12-27T20:53:20Z</time>
      </trkpt>
      <trkpt lat="36.544690" lon="-118.781710">
        <ele>1456.325</ele>
        <time>2018-12-27T20:53:40Z</time>
      </trkpt>
      <trkpt lat="36.544680" lon="-118.781650">
        <ele>1454.190</ele>
        <time>2018-12-27T20:54:00Z</time>
      </trkpt>
      <trkpt lat="36.544670" lon="-118.781600">
        <ele>1452.190</ele>
        <time>2018-12-27T20:54:20Z</time>
      </trkpt>
      <trkpt lat="36.544670" lon="-118.781570">
        <ele>1451.214</ele>
        <time>2018-12-27T20:54:40Z</time>
      </trkpt>
      <trkpt lat="36.544670" lon="-118.781540">
        <ele>1450.437</ele>
        <time>2018-12-27T20:55:00Z</time>
      </trkpt>
      <trkpt lat="36.544670" lon="-118.781490">
        <ele>1449.058</ele>
        <time>2018-12-27T20:55:20Z</time>
      </trkpt>
      <trkpt lat="36.544690" lon="-118.781420">
        <ele>1448.261</ele>
        <time>2018-12-27T20:55:40Z</time>
      </trkpt>
      <trkpt lat="36.544710" lon="-118.781370">
        <ele>1447.991</ele>
        <time>2018-12-27T20:56:00Z</time>
      </trkpt>
      <trkpt lat="36.544760" lon="-118.781290">
        <ele>1448.081</ele>
        <time>2018-12-27T20:56:20Z</time>
      </trkpt>
      <trkpt lat="36.544820" lon="-118.781210">
        <ele>1448.119</ele>
        <time>2018-12-27T20:56:40Z</time>
      </trkpt>
      <trkpt lat="36.544870" lon="-118.781150">
        <ele>1449.008</ele>
        <time>2018-12-27T20:57:00Z</time>
      </trkpt>
      <trkpt lat="36.544930" lon="-118.781080">
        <ele>1450.152</ele>
        <time>2018-12-27T20:57:20Z</time>
      </trkpt>
      <trkpt lat="36.545030" lon="-118.780960">
        <ele>1449.210</ele>
        <time>2018-12-27T20:57:40Z</time>
      </trkpt>
      <trkpt lat="36.545250" lon="-118.780780">
        <ele>1453.695</ele>
        <time>2018-12-27T20:58:00Z</time>
      </trkpt>
      <trkpt lat="36.545320" lon="-118.780720">
        <ele>1454.295</ele>
        <time>2018-12-27T20:58:20Z</time>
      </trkpt>
      <trkpt lat="36.545360" lon="-118.780700">
        <ele>1455.069</ele>
        <time>2018-12-27T20:58:40Z</time>
      </trkpt>
      <trkpt lat="36.545370" lon="-118.780680">
        <ele>1454.622</ele>
        <time>2018-12-27T20:59:00Z</time>
      </trkpt>
      <trkpt lat="36.545380" lon="-118.780650">
        <ele>1454.033</ele>
        <time>2018-12-27T20:59:20Z</time>
      </trkpt>
      <trkpt lat="36.545400" lon="-118.780620">
        <ele>1454.066</ele>
        <time>2018-12-27T20:59:40Z</time>
      </trkpt>
      <trkpt lat="36.545410" lon="-118.780590">
        <ele>1453.663</ele>
        <time>2018-12-27T21:00:00Z</time>
      </trkpt>
      <trkpt lat="36.545410" lon="-118.780560">
        <ele>1452.644</ele>
        <time>2018-12-27T21:00:20Z</time>
      </trkpt>
      <trkpt lat="36.545410" lon="-118.780500">
        <ele>1450.718</ele>
        <time>2018-12-27T21:00:40Z</time>
      </trkpt>
      <trkpt lat="36.545420" lon="-118.780460">
        <ele>1450.008</ele>
        <time>2018-12-27T21:01:00Z</time>
      </trkpt>
      <trkpt lat="36.545410" lon="-118.780420">
        <ele>1448.199</ele>
        <time>2018-12-27T21:01:20Z</time>
      </trkpt>
      <trkpt lat="36.545400" lon="-118.780370">
        <ele>1447.777</ele>
        <time>2018-12-27T21:01:40Z</time>
      </trkpt>
      <trkpt lat="36.545390" lon="-118.780340">
        <ele>1447.292</ele>
        <time>2018-12-27T21:02:00Z</time>
      </trkpt>
      <trkpt lat="36.545390" lon="-118.780310">
        <ele>1447.562</ele>
        <time>2018-12-27T21:02:20Z</time>
      </trkpt>
      <trkpt lat="36.545380" lon="-118.780290">
        <ele>1446.946</ele>
        <time>2018-12-27T21:02:40Z</time>
      </trkpt>
      <trkpt lat="36.545360" lon="-118.780270">
        <ele>1445.719</ele>
        <time>2018-12-27T21:03:00Z</time>
      </trkpt>
      <trkpt lat="36.545340" lon="-118.780230">
        <ele>1444.560</ele>
        <time>2018-12-27T21:03:20Z</time>
      </trkpt>
      <trkpt lat="36.545330" lon="-118.780210">
        <ele>1443.983</ele>
        <time>2018-12-27T21:03:40Z</time>
      </trkpt>
      <trkpt lat="36.545320" lon="-118.780200">
        <ele>1443.379</ele>
        <time>2018-12-27T21:04:00Z</time>
      </trkpt>
      <trkpt lat="36.545310" lon="-118.780170">
        <ele>1442.805</ele>
        <time>2018-12-27T21:04:20Z</time>
      </trkpt>
      <trkpt lat="36.545280" lon="-118.780130">
        <ele>1441.125</ele>
        <time>2018-12-27T21:04:40Z</time>
      </trkpt>
      <trkpt lat="36.545260" lon="-118.780110">
        <ele>1440.308</ele>
        <time>2018-12-27T21:05:00Z</time>
      </trkpt>
      <trkpt lat="36.545210" lon="-118.780050">
        <ele>1438.680</ele>
        <time>2018-12-27T21:05:20Z</time>
      </trkpt>
      <trkpt lat="36.545170" lon="-118.780020">
        <ele>1436.768</ele>
        <time>2018-12-27T21:05:40Z</time>
      </trkpt>
      <trkpt lat="36.545150" lon="-118.779990">
        <ele>1436.283</ele>
        <time>2018-12-27T21:06:00Z</time>
      </trkpt>
      <trkpt lat="36.545130" lon="-118.779970">
        <ele>1435.373</ele>
        <time>2018-12-27T21:06:20Z</time>
      </trkpt>
      <trkpt lat="36.545120" lon="-118.779960">
        <ele>1434.867</ele>
        <time>2018-12-27T21:06:40Z</time>
      </trkpt>
      <trkpt lat="36.545110" lon="-118.779950">
        <ele>1434.370</ele>
        <time>2018-12-27T21:07:00Z</time>
      </trkpt>
      <trkpt lat="36.545100" lon="-118.779910">
        <ele>1434.971</ele>
        <time>2018-12-27T21:07:20Z</time>
      </trkpt>
      <trkpt lat="36.545080" lon="-118.779870">
        <ele>1434.624</ele>
        <time>2018-12-27T21:07:40Z</time>
      </trkpt>
      <trkpt lat="36.545040" lon="-118.779790">
        <ele>1433.317</ele>
        <time>2018-12-27T21:08:00Z</time>
      </trkpt>
      <trkpt lat="36.545010" lon="-118.779700">
        <ele>1433.187</ele>
        <time>2018-12-27T21:08:20Z</time>
      </trkpt>
      <trkpt lat="36.544990" lon="-118.779660">
        <ele>1432.715</ele>
        <time>2018-12-27T21:08:40Z</time>
      </trkpt>
      <trkpt lat="36.544970" lon="-118.779610">
        <ele>1432.708</ele>
        <time>2018-12-27T21:09:00Z</time>
      </trkpt>
      <trkpt lat="36.544930" lon="-118.779570">
        <ele>1431.384</ele>
        <time>2018-12-27T21:09:20Z</time>
      </trkpt>
      <trkpt lat="36.544920" lon="-118.779540">
        <ele>1431.572</ele>
        <time>2018-12-27T21:09:40Z</time>
      </trkpt>
      <trkpt lat="36.544900" lon="-118.779520">
        <ele>1430.947</ele>
        <time>2018-12-27T21:10:00Z</time>
      </trkpt>
      <trkpt lat="36.544870" lon="-118.779490">
        <ele>1430.157</ele>
        <time>2018-12-27T21:10:20Z</time>
      </trkpt>
      <trkpt lat="36.544840" lon="-118.779470">
        <ele>1429.091</ele>
        <time>2018-12-27T21:10:40Z</time>
      </trkpt>
      <trkpt lat="36.544800" lon="-118.779440">
        <ele>1427.964</ele>
        <time>2018-12-27T21:11:00Z</time>
      </trkpt>
      <trkpt lat="36.544690" lon="-118.779360">
        <ele>1424.935</ele>
        <time>2018-12-27T21:11:20Z</time>
      </trkpt>
      <trkpt lat="36.544630" lon="-118.779300">
        <ele>1424.278</ele>
        <time>2018-12-27T21:11:40Z</time>
      </trkpt>
      <trkpt lat="36.544580" lon="-118.779260">
        <ele>1423.792</ele>
        <time>2018-12-27T21:12:00Z</time>
      </trkpt>
      <trkpt lat="36.544540" lon="-118.779210">
        <ele>1423.973</ele>
        <time>2018-12-27T21:12:20Z</time>
      </trkpt>
      <trkpt lat="36.544490" lon="-118.779140">
        <ele>1424.620</ele>
        <time>2018-12-27T21:12:40Z</time>
      </trkpt>
      <trkpt lat="36.544460" lon="-118.779070">
        <ele>1426.508</ele>
        <time>2018-12-27T21:13:00Z</time>
      </trkpt>
      <trkpt lat="36.544440" lon="-118.779040">
        <ele>1427.092</ele>
        <time>2018-12-27T21:13:20Z</time>
      </trkpt>
      <trkpt lat="36.544430" lon="-118.779000">
        <ele>1428.040</ele>
        <time>2018-12-27T21:13:40Z</time>
      </trkpt>
      <trkpt lat="36.544420" lon="-118.778960">
        <ele>1428.855</ele>
        <time>2018-12-27T21:14:00Z</time>
      </trkpt>
      <trkpt lat="36.544410" lon="-118.778910">
        <ele>1429.975</ele>
        <time>2018-12-27T21:14:20Z</time>
      </trkpt>
      <trkpt lat="36.544410" lon="-118.778880">
        <ele>1430.939</ele>
        <time>2018-12-27T21:14:40Z</time>
      </trkpt>
      <trkpt lat="36.544400" lon="-118.778830">
        <ele>1431.822</ele>
        <time>2018-12-27T21:15:00Z</time>
      </trkpt>
      <trkpt lat="36.544390" lon="-118.778740">
        <ele>1433.863</ele>
        <time>2018-12-27T21:15:20Z</time>
      </trkpt>
      <trkpt lat="36.544380" lon="-118.778660">
        <ele>1434.316</ele>
        <time>2018-12-27T21:15:40Z</time>
      </trkpt>
      <trkpt lat="36.544370" lon="-118.778590">
        <ele>1434.654</ele>
        <time>2018-12-27T21:16:00Z</time>
      </trkpt>
      <trkpt lat="36.544360" lon="-118.778540">
        <ele>1434.456</ele>
        <time>2018-12-27T21:16:20Z</time>
      </trkpt>
      <trkpt lat="36.544350" lon="-118.778490">
        <ele>1434.211</ele>
        <time>2018-12-27T21:16:40Z</time>
      </trkpt>
      <trkpt lat="36.544350" lon="-118.778460">
        <ele>1434.608</ele>
        <time>2018-12-27T21:17:00Z</time>
      </trkpt>
      <trkpt lat="36.544340" lon="-118.778440">
        <ele>1434.078</ele>
        <time>2018-12-27T21:17:20Z</time>
      </trkpt>
      <trkpt lat="36.544330" lon="-118.778420">
        <ele>1433.466</ele>
        <time>2018-12-27T21:17:40Z</time>
      </trkpt>
      <trkpt lat="36.544330" lon="-118.778410">
        <ele>1433.521</ele>
        <time>2018-12-27T21:18:00Z</time>
      </trkpt>
      <trkpt lat="36.544320" lon="-118.778390">
        <ele>1432.931</ele>
        <time>2018-12-27T21:18:20Z</time>
      </trkpt>
      <trkpt lat="36.544310" lon="-118.778390">
        <ele>1432.045</ele>
        <time>2018-12-27T21:18:40Z</time>
      </trkpt>
      <trkpt lat="36.544300" lon="-118.778380">
        <ele>1431.538</ele>
        <time>2018-12-27T21:19:00Z</time>
      </trkpt>
      <trkpt lat="36.544290" lon="-118.778370">
        <ele>1431.219</ele>
        <time>2018-12-27T21:19:20Z</time>
      </trkpt>
      <trkpt lat="36.544280" lon="-118.778370">
        <ele>1430.792</ele>
        <time>2018-12-27T21:19:40Z</time>
      </trkpt>
      <trkpt lat="36.544270" lon="-118.778360">
        <ele>1430.422</ele>
        <time>2018-12-27T21:20:00Z</time>
      </trkpt>
      <trkpt lat="36.544250" lon="-118.778360">
        <ele>1429.462</ele>
        <time>2018-12-27T21:20:20Z</time>
      </trkpt>
      <trkpt lat="36.544240" lon="-118.778360">
        <ele>1429.008</ele>
        <time>2018-12-27T21:20:40Z</time>
      </trkpt>
      <trkpt lat="36.544220" lon="-118.778360">
        <ele>1428.008</ele>
        <time>2018-12-27T21:21:00Z</time>
      </trkpt>
      <trkpt lat="36.544210" lon="-118.778370">
        <ele>1427.375</ele>
        <time>2018-12-27T21:21:20Z</time>
      </trkpt>
      <trkpt lat="36.544200" lon="-118.778380">
        <ele>1426.663</ele>
        <time>2018-12-27T21:21:40Z</time>
      </trkpt>
      <trkpt lat="36.544190" lon="-118.778390">
        <ele>1425.868</ele>
        <time>2018-12-27T21:22:00Z</time>
      </trkpt>
      <trkpt lat="36.544180" lon="-118.778410">
        <ele>1424.878</ele>
        <time>2018-12-27T21:22:20Z</time>
      </trkpt>
      <trkpt lat="36.544180" lon="-118.778420">
        <ele>1424.512</ele>
        <time>2018-12-27T21:22:40Z</time>
      </trkpt>
      <trkpt lat="36.544180" lon="-118.778440">
        <ele>1424.055</ele>
        <time>2018-12-27T21:23:00Z</time>
      </trkpt>
      <trkpt lat="36.544170" lon="-118.778450">
        <ele>1423.236</ele>
        <time>2018-12-27T21:23:20Z</time>
      </trkpt>
      <trkpt lat="36.544170" lon="-118.778470">
        <ele>1422.759</ele>
        <time>2018-12-27T21:23:40Z</time>
      </trkpt>
      <trkpt lat="36.544180" lon="-118.778490">
        <ele>1422.844</ele>
        <time>2018-12-27T21:24:00Z</time>
      </trkpt>
      <trkpt lat="36.544180" lon="-118.778520">
        <ele>1422.305</ele>
        <time>2018-12-27T21:24:20Z</time>
      </trkpt>
      <trkpt lat="36.544190" lon="-118.778530">
        <ele>1422.715</ele>
        <time>2018-12-27T21:24:40Z</time>
      </trkpt>
      <trkpt lat="36.544190" lon="-118.778540">
        <ele>1422.508</ele>
        <time>2018-12-27T21:25:00Z</time>
      </trkpt>
      <trkpt lat="36.544200" lon="-118.778560">
        <ele>1422.837</ele>
        <time>2018-12-27T21:25:20Z</time>
      </trkpt>
      <trkpt lat="36.544220" lon="-118.778630">
        <ele>1423.015</ele>
        <time>2018-12-27T21:25:40Z</time>
      </trkpt>
      <trkpt lat="36.544230" lon="-118.778650">
        <ele>1423.380</ele>
        <time>2018-12-27T21:26:00Z</time>
      </trkpt>
      <trkpt lat="36.544240" lon="-118.778680">
        <ele>1423.610</ele>
        <time>2018-12-27T21:26:20Z</time>
      </trkpt>
      <trkpt lat="36.544250" lon="-118.778720">
        <ele>1423.834</ele>
        <time>2018-12-27T21:26:40Z</time>
      </trkpt>
      <trkpt lat="36.544260" lon="-118.778790">
        <ele>1423.137</ele>
        <time>2018-12-27T21:27:00Z</time>
      </trkpt>
      <trkpt lat="36.544270" lon="-118.778840">
        <ele>1422.598</ele>
        <time>2018-12-27T21:27:20Z</time>
      </trkpt>
      <trkpt lat="36.544270" lon="-118.778890">
        <ele>1421.231</ele>
        <time>2018-12-27T21:27:40Z</time>
      </trkpt>
      <trkpt lat="36.544270" lon="-118.778940">
        <ele>1419.984</ele>
        <time>2018-12-27T21:28:00Z</time>
      </trkpt>
      <trkpt lat="36.544270" lon="-118.778980">
        <ele>1418.807</ele>
        <time>2018-12-27T21:28:20Z</time>
      </trkpt>
      <trkpt lat="36.544280" lon="-118.779020">
        <ele>1418.617</ele>
        <time>2018-12-27T21:28:40Z</time>
      </trkpt>
      <trkpt lat="36.544290" lon="-118.779090">
        <ele>1415.808</ele>
        <time>2018-12-27T21:29:00Z</time>
      </trkpt>
      <trkpt lat="36.544330" lon="-118.779190">
        <ele>1412.991</ele>
        <time>2018-12-27T21:29:20Z</time>
      </trkpt>
      <trkpt lat="36.544440" lon="-118.779370">
        <ele>1411.149</ele>
        <time>2018-12-27T21:29:40Z</time>
      </trkpt>
      <trkpt lat="36.544530" lon="-118.779540">
        <ele>1410.094</ele>
        <time>2018-12-27T21:30:00Z</time>
      </trkpt>
      <trkpt lat="36.544580" lon="-118.779610">
        <ele>1410.234</ele>
        <time>2018-12-27T21:30:20Z</time>
      </trkpt>
      <trkpt lat="36.544660" lon="-118.779790">
        <ele>1410.248</ele>
        <time>2018-12-27T21:30:40Z</time>
      </trkpt>
      <trkpt lat="36.544740" lon="-118.779960">
        <ele>1407.511</ele>
        <time>2018-12-27T21:31:00Z</time>
      </trkpt>
      <trkpt lat="36.544790" lon="-118.780060">
        <ele>1405.552</ele>
        <time>2018-12-27T21:31:20Z</time>
      </trkpt>
      <trkpt lat="36.544810" lon="-118.780110">
        <ele>1404.385</ele>
        <time>2018-12-27T21:31:40Z</time>
      </trkpt>
      <trkpt lat="36.544820" lon="-118.780150">
        <ele>1403.734</ele>
        <time>2018-12-27T21:32:00Z</time>
      </trkpt>
      <trkpt lat="36.544840" lon="-118.780220">
        <ele>1405.355</ele>
        <time>2018-12-27T21:32:20Z</time>
      </trkpt>
      <trkpt lat="36.544840" lon="-118.780250">
        <ele>1405.610</ele>
        <time>2018-12-27T21:32:40Z</time>
      </trkpt>
      <trkpt lat="36.544840" lon="-118.780270">
        <ele>1405.708</ele>
        <time>2018-12-27T21:33:00Z</time>
      </trkpt>
      <trkpt lat="36.544850" lon="-118.780290">
        <ele>1406.426</ele>
        <time>2018-12-27T21:33:20Z</time>
      </trkpt>
      <trkpt lat="36.544850" lon="-118.780300">
        <ele>1406.594</ele>
        <time>2018-12-27T21:33:40Z</time>
      </trkpt>
      <trkpt lat="36.544840" lon="-118.780320">
        <ele>1406.249</ele>
        <time>2018-12-27T21:34:00Z</time>
      </trkpt>
      <trkpt lat="36.544840" lon="-118.780350">
        <ele>1406.489</ele>
        <time>2018-12-27T21:34:20Z</time>
      </trkpt>
      <trkpt lat="36.544830" lon="-118.780400">
        <ele>1406.333</ele>
        <time>2018-12-27T21:34:40Z</time>
      </trkpt>
      <trkpt lat="36.544810" lon="-118.780460">
        <ele>1408.056</ele>
        <time>2018-12-27T21:35:00Z</time>
      </trkpt>
      <trkpt lat="36.544790" lon="-118.780510">
        <ele>1409.847</ele>
        <time>2018-12-27T21:35:20Z</time>
      </trkpt>
      <trkpt lat="36.544760" lon="-118.780550">
        <ele>1410.320</ele>
        <time>2018-12-27T21:35:40Z</time>
      </trkpt>
      <trkpt lat="36.544730" lon="-118.780600">
        <ele>1411.052</ele>
        <time>2018-12-27T21:36:00Z</time>
      </trkpt>
      <trkpt lat="36.544700" lon="-118.780640">
        <ele>1411.153</ele>
        <time>2018-12-27T21:36:20Z</time>
      </trkpt>
      <trkpt lat="36.544660" lon="-118.780680">
        <ele>1410.208</ele>
        <time>2018-12-27T21:36:40Z</time>
      </trkpt>
      <trkpt lat="36.544590" lon="-118.780760">
        <ele>1410.108</ele>
        <time>2018-12-27T21:37:00Z</time>
      </trkpt>
      <trkpt lat="36.544530" lon="-118.780820">
        <ele>1410.618</ele>
        <time>2018-12-27T21:37:20Z</time>
      </trkpt>
      <trkpt lat="36.544480" lon="-118.780860">
        <ele>1410.056</ele>
        <time>2018-12-27T21:37:40Z</time>
      </trkpt>
      <trkpt lat="36.544460" lon="-118.780880">
        <ele>1409.811</ele>
        <time>2018-12-27T21:38:00Z</time>
      </trkpt>
      <trkpt lat="36.544380" lon="-118.780930">
        <ele>1407.151</ele>
        <time>2018-12-27T21:38:20Z</time>
      </trkpt>
      <trkpt lat="36.544340" lon="-118.780970">
        <ele>1406.075</ele>
        <time>2018-12-27T21:38:40Z</time>
      </trkpt>
      <trkpt lat="36.544300" lon="-118.781000">
        <ele>1404.678</ele>
        <time>2018-12-27T21:39:00Z</time>
      </trkpt>
      <trkpt lat="36.544270" lon="-118.781030">
        <ele>1404.539</ele>
        <time>2018-12-27T21:39:20Z</time>
      </trkpt>
      <trkpt lat="36.544250" lon="-118.781060">
        <ele>1404.752</ele>
        <time>2018-12-27T21:39:40Z</time>
      </trkpt>
      <trkpt lat="36.544230" lon="-118.781100">
        <ele>1405.279</ele>
        <time>2018-12-27T21:40:00Z</time>
      </trkpt>
      <trkpt lat="36.544210" lon="-118.781130">
        <ele>1405.205</ele>
        <time>2018-12-27T21:40:20Z</time>
      </trkpt>
      <trkpt lat="36.544190" lon="-118.781170">
        <ele>1405.425</ele>
        <time>2018-12-27T21:40:40Z</time>
      </trkpt>
      <trkpt lat="36.544170" lon="-118.781200">
        <ele>1405.208</ele>
        <time>2018-12-27T21:41:00Z</time>
      </trkpt>
      <trkpt lat="36.544160" lon="-118.781230">
        <ele>1405.510</ele>
        <time>2018-12-27T21:41:20Z</time>
      </trkpt>
      <trkpt lat="36.544150" lon="-118.781270">
        <ele>1405.948</ele>
        <time>2018-12-27T21:41:40Z</time>
      </trkpt>
      <trkpt lat="36.544150" lon="-118.781280">
        <ele>1406.043</ele>
        <time>2018-12-27T21:42:00Z</time>
      </trkpt>
      <trkpt lat="36.544140" lon="-118.781320">
        <ele>1406.283</ele>
        <time>2018-12-27T21:42:20Z</time>
      </trkpt>
      <trkpt lat="36.544130" lon="-118.781380">
        <ele>1406.737</ele>
        <time>2018-12-27T21:42:40Z</time>
      </trkpt>
      <trkpt lat="36.544120" lon="-118.781430">
        <ele>1407.060</ele>
        <time>2018-12-27T21:43:00Z</time>
      </trkpt>
      <trkpt lat="36.544100" lon="-118.781470">
        <ele>1406.511</ele>
        <time>2018-12-27T21:43:20Z</time>
      </trkpt>
      <trkpt lat="36.544080" lon="-118.781530">
        <ele>1406.544</ele>
        <time>2018-12-27T21:43:40Z</time>
      </trkpt>
      <trkpt lat="36.544050" lon="-118.781580">
        <ele>1408.254</ele>
        <time>2018-12-27T21:44:00Z</time>
      </trkpt>
      <trkpt lat="36.544030" lon="-118.781610">
        <ele>1409.356</ele>
        <time>2018-12-27T21:44:20Z</time>
      </trkpt>
      <trkpt lat="36.544010" lon="-118.781640">
        <ele>1411.011</ele>
        <time>2018-12-27T21:44:40Z</time>
      </trkpt>
      <trkpt lat="36.543980" lon="-118.781660">
        <ele>1411.608</ele>
        <time>2018-12-27T21:45:00Z</time>
      </trkpt>
      <trkpt lat="36.543960" lon="-118.781680">
        <ele>1412.418</ele>
        <time>2018-12-27T21:45:20Z</time>
      </trkpt>
      <trkpt lat="36.543930" lon="-118.781700">
        <ele>1412.886</ele>
        <time>2018-12-27T21:45:40Z</time>
      </trkpt>
      <trkpt lat="36.543890" lon="-118.781710">
        <ele>1412.271</ele>
        <time>2018-12-27T21:46:00Z</time>
      </trkpt>
      <trkpt lat="36.543840" lon="-118.781720">
        <ele>1411.291</ele>
        <time>2018-12-27T21:46:20Z</time>
      </trkpt>
      <trkpt lat="36.543780" lon="-118.781720">
        <ele>1409.255</ele>
        <time>2018-12-27T21:46:40Z</time>
      </trkpt>
      <trkpt lat="36.543700" lon="-118.781730">
        <ele>1406.968</ele>
        <time>2018-12-27T21:47:00Z</time>
      </trkpt>
      <trkpt lat="36.543610" lon="-118.781730">
        <ele>1403.739</ele>
        <time>2018-12-27T21:47:20Z</time>
      </trkpt>
      <trkpt lat="36.543560" lon="-118.781740">
        <ele>1402.312</ele>
        <time>2018-12-27T21:47:40Z</time>
      </trkpt>
      <trkpt lat="36.543510" lon="-118.781770">
        <ele>1401.371</ele>
        <time>2018-12-27T21:48:00Z</time>
      </trkpt>
      <trkpt lat="36.543450" lon="-118.781800">
        <ele>1399.541</ele>
        <time>2018-12-27T21:48:20Z</time>
      </trkpt>
      <trkpt lat="36.543410" lon="-118.781830">
        <ele>1398.515</ele>
        <time>2018-12-27T21:48:40Z</time>
      </trkpt>
      <trkpt lat="36.543380" lon="-118.781860">
        <ele>1398.208</ele>
        <time>2018-12-27T21:49:00Z</time>
      </trkpt>
      <trkpt lat="36.543300" lon="-118.781930">
        <ele>1397.950</ele>
        <time>2018-12-27T21:49:20Z</time>
      </trkpt>
      <trkpt lat="36.543230" lon="-118.781990">
        <ele>1398.528</ele>
        <time>2018-12-27T21:49:40Z</time>
      </trkpt>
      <trkpt lat="36.543150" lon="-118.782030">
        <ele>1399.423</ele>
        <time>2018-12-27T21:50:00Z</time>
      </trkpt>
      <trkpt lat="36.543060" lon="-118.782050">
        <ele>1400.013</ele>
        <time>2018-12-27T21:50:20Z</time>
      </trkpt>
      <trkpt lat="36.542890" lon="-118.782070">
        <ele>1400.977</ele>
        <time>2018-12-27T21:50:40Z</time>
      </trkpt>
      <trkpt lat="36.542810" lon="-118.782060">
        <ele>1401.840</ele>
        <time>2018-12-27T21:51:00Z</time>
      </trkpt>
      <trkpt lat="36.542730" lon="-118.782040">
        <ele>1401.951</ele>
        <time>2018-12-27T21:51:20Z</time>
      </trkpt>
      <trkpt lat="36.542690" lon="-118.782020">
        <ele>1401.394</ele>
        <time>2018-12-27T21:51:40Z</time>
      </trkpt>
      <trkpt lat="36.542650" lon="-118.781990">
        <ele>1400.098</ele>
        <time>2018-12-27T21:52:00Z</time>
      </trkpt>
      <trkpt lat="36.542610" lon="-118.781970">
        <ele>1400.015</ele>
        <time>2018-12-27T21:52:20Z</time>
      </trkpt>
      <trkpt lat="36.542590" lon="-118.781930">
        <ele>1398.226</ele>
        <time>2018-12-27T21:52:40Z</time>
      </trkpt>
      <trkpt lat="36.542470" lon="-118.781840">
        <ele>1396.408</ele>
        <time>2018-12-27T21:53:00Z</time>
      </trkpt>
      <trkpt lat="36.542230" lon="-118.781650">
        <ele>1392.712</ele>
        <time>2018-12-27T21:53:20Z</time>
      </trkpt>
      <trkpt lat="36.542090" lon="-118.781570">
        <ele>1390.140</ele>
        <time>2018-12-27T21:53:40Z</time>
      </trkpt>
      <trkpt lat="36.541970" lon="-118.781510">
        <ele>1383.625</ele>
        <time>2018-12-27T21:54:00Z</time>
      </trkpt>
      <trkpt lat="36.541880" lon="-118.781510">
        <ele>1381.815</ele>
        <time>2018-12-27T21:54:20Z</time>
      </trkpt>
      <trkpt lat="36.541760" lon="-118.781520">
        <ele>1379.389</ele>
        <time>2018-12-27T21:54:40Z</time>
      </trkpt>
      <trkpt lat="36.541700" lon="-118.781530">
        <ele>1378.032</ele>
        <time>2018-12-27T21:55:00Z</time>
      </trkpt>
      <trkpt lat="36.541650" lon="-118.781560">
        <ele>1378.123</ele>
        <time>2018-12-27T21:55:20Z</time>
      </trkpt>
      <trkpt lat="36.541550" lon="-118.781640">
        <ele>1377.146</ele>
        <time>2018-12-27T21:55:40Z</time>
      </trkpt>
      <trkpt lat="36.541520" lon="-118.781710">
        <ele>1377.417</ele>
        <time>2018-12-27T21:56:00Z</time>
      </trkpt>
      <trkpt lat="36.541480" lon="-118.781810">
        <ele>1377.987</ele>
        <time>2018-12-27T21:56:20Z</time>
      </trkpt>
      <trkpt lat="36.541300" lon="-118.782270">
        <ele>1374.815</ele>
        <time>2018-12-27T21:56:40Z</time>
      </trkpt>
      <trkpt lat="36.541280" lon="-118.782430">
        <ele>1374.708</ele>
        <time>2018-12-27T21:57:00Z</time>
      </trkpt>
      <trkpt lat="36.541270" lon="-118.782640">
        <ele>1375.344</ele>
        <time>2018-12-27T21:57:20Z</time>
      </trkpt>
      <trkpt lat="36.541200" lon="-118.783160">
        <ele>1371.762</ele>
        <time>2018-12-27T21:57:40Z</time>
      </trkpt>
      <trkpt lat="36.541140" lon="-118.783570">
        <ele>1366.527</ele>
        <time>2018-12-27T21:58:00Z</time>
      </trkpt>
      <trkpt lat="36.541070" lon="-118.783790">
        <ele>1369.897</ele>
        <time>2018-12-27T21:58:20Z</time>
      </trkpt>
      <trkpt lat="36.541020" lon="-118.783870">
        <ele>1373.271</ele>
        <time>2018-12-27T21:58:40Z</time>
      </trkpt>
      <trkpt lat="36.540960" lon="-118.783910">
        <ele>1373.834</ele>
        <time>2018-12-27T21:59:00Z</time>
      </trkpt>
      <trkpt lat="36.540810" lon="-118.783970">
        <ele>1376.345</ele>
        <time>2018-12-27T21:59:20Z</time>
      </trkpt>
      <trkpt lat="36.540780" lon="-118.783980">
        <ele>1376.758</ele>
        <time>2018-12-27T21:59:40Z</time>
      </trkpt>
      <trkpt lat="36.540750" lon="-118.783980">
        <ele>1376.427</ele>
        <time>2018-12-27T22:00:00Z</time>
      </trkpt>
      <trkpt lat="36.540710" lon="-118.783980">
        <ele>1376.068</ele>
        <time>2018-12-27T22:00:20Z</time>
      </trkpt>
      <trkpt lat="36.540680" lon="-118.783970">
        <ele>1375.214</ele>
        <time>2018-12-27T22:00:40Z</time>
      </trkpt>
      <trkpt lat="36.540620" lon="-118.783970">
        <ele>1375.208</ele>
        <time>2018-12-27T22:01:00Z</time>
      </trkpt>
      <trkpt lat="36.540570" lon="-118.783960">
        <ele>1374.565</ele>
        <time>2018-12-27T22:01:20Z</time>
      </trkpt>
      <trkpt lat="36.540540" lon="-118.783960">
        <ele>1374.673</ele>
        <time>2018-12-27T22:01:40Z</time>
      </trkpt>
      <trkpt lat="36.540500" lon="-118.783960">
        <ele>1374.628</ele>
        <time>2018-12-27T22:02:00Z</time>
      </trkpt>
      <trkpt lat="36.540420" lon="-118.783960">
        <ele>1374.668</ele>
        <time>2018-12-27T22:02:20Z</time>
      </trkpt>
      <trkpt lat="36.540330" lon="-118.783960">
        <ele>1376.322</ele>
        <time>2018-12-27T22:02:40Z</time>
      </trkpt>
      <trkpt lat="36.540260" lon="-118.783960">
        <ele>1377.775</ele>
        <time>2018-12-27T22:03:00Z</time>
      </trkpt>
      <trkpt lat="36.540230" lon="-118.783960">
        <ele>1378.346</ele>
        <time>2018-12-27T22:03:20Z</time>
      </trkpt>
      <trkpt lat="36.540190" lon="-118.783950">
        <ele>1378.429</ele>
        <time>2018-12-27T22:03:40Z</time>
      </trkpt>
      <trkpt lat="36.540160" lon="-118.783930">
        <ele>1377.524</ele>
        <time>2018-12-27T22:04:00Z</time>
      </trkpt>
      <trkpt lat="36.540130" lon="-118.783910">
        <ele>1376.804</ele>
        <time>2018-12-27T22:04:20Z</time>
      </trkpt>
      <trkpt lat="36.540100" lon="-118.783880">
        <ele>1376.014</ele>
        <time>2018-12-27T22:04:40Z</time>
      </trkpt>
      <trkpt lat="36.540070" lon="-118.783860">
        <ele>1375.808</ele>
        <time>2018-12-27T22:05:00Z</time>
      </trkpt>
      <trkpt lat="36.540020" lon="-118.783800">
        <ele>1373.415</ele>
        <time>2018-12-27T22:05:20Z</time>
      </trkpt>
      <trkpt lat="36.539980" lon="-118.783770">
        <ele>1372.793</ele>
        <time>2018-12-27T22:05:40Z</time>
      </trkpt>
      <trkpt lat="36.539950" lon="-118.783740">
        <ele>1371.748</ele>
        <time>2018-12-27T22:06:00Z</time>
      </trkpt>
      <trkpt lat="36.539900" lon="-118.783710">
        <ele>1371.998</ele>
        <time>2018-12-27T22:06:20Z</time>
      </trkpt>
      <trkpt lat="36.539860" lon="-118.783680">
        <ele>1371.632</ele>
        <time>2018-12-27T22:06:40Z</time>
      </trkpt>
      <trkpt lat="36.539790" lon="-118.783660">
        <ele>1372.775</ele>
        <time>2018-12-27T22:07:00Z</time>
      </trkpt>
      <trkpt lat="36.539710" lon="-118.783640">
        <ele>1373.786</ele>
        <time>2018-12-27T22:07:20Z</time>
      </trkpt>
      <trkpt lat="36.539580" lon="-118.783600">
        <ele>1373.999</ele>
        <time>2018-12-27T22:07:40Z</time>
      </trkpt>
      <trkpt lat="36.539530" lon="-118.783590">
        <ele>1374.742</ele>
        <time>2018-12-27T22:08:00Z</time>
      </trkpt>
      <trkpt lat="36.539490" lon="-118.783580">
        <ele>1375.222</ele>
        <time>2018-12-27T22:08:20Z</time>
      </trkpt>
      <trkpt lat="36.539430" lon="-118.783550">
        <ele>1374.514</ele>
        <time>2018-12-27T22:08:40Z</time>
      </trkpt>
      <trkpt lat="36.539390" lon="-118.783530">
        <ele>1373.908</ele>
        <time>2018-12-27T22:09:00Z</time>
      </trkpt>
      <trkpt lat="36.539360" lon="-118.783510">
        <ele>1372.977</ele>
        <time>2018-12-27T22:09:20Z</time>
      </trkpt>
      <trkpt lat="36.539310" lon="-118.783480">
        <ele>1371.685</ele>
        <time>2018-12-27T22:09:40Z</time>
      </trkpt>
      <trkpt lat="36.539230" lon="-118.783410">
        <ele>1371.820</ele>
        <time>2018-12-27T22:10:00Z</time>
      </trkpt>
      <trkpt lat="36.539120" lon="-118.783320">
        <ele>1370.060</ele>
        <time>2018-12-27T22:10:20Z</time>
      </trkpt>
      <trkpt lat="36.539010" lon="-118.783240">
        <ele>1365.964</ele>
        <time>2018-12-27T22:10:40Z</time>
      </trkpt>
      <trkpt lat="36.538960" lon="-118.783210">
        <ele>1364.727</ele>
        <time>2018-12-27T22:11:00Z</time>
      </trkpt>
      <trkpt lat="36.538910" lon="-118.783180">
        <ele>1363.928</ele>
        <time>2018-12-27T22:11:20Z</time>
      </trkpt>
      <trkpt lat="36.538860" lon="-118.783160">
        <ele>1364.191</ele>
        <time>2018-12-27T22:11:40Z</time>
      </trkpt>
      <trkpt lat="36.538800" lon="-118.783130">
        <ele>1363.719</ele>
        <time>2018-12-27T22:12:00Z</time>
      </trkpt>
      <trkpt lat="36.538760" lon="-118.783110">
        <ele>1363.309</ele>
        <time>2018-12-27T22:12:20Z</time>
      </trkpt>
      <trkpt lat="36.538700" lon="-118.783080">
        <ele>1363.119</ele>
        <time>2018-12-27T22:12:40Z</time>
      </trkpt>
      <trkpt lat="36.538600" lon="-118.783010">
        <ele>1360.408</ele>
        <time>2018-12-27T22:13:00Z</time>
      </trkpt>
      <trkpt lat="36.538510" lon="-118.782940">
        <ele>1356.194</ele>
        <time>2018-12-27T22:13:20Z</time>
      </trkpt>
      <trkpt lat="36.538420" lon="-118.782880">
        <ele>1354.952</ele>
        <time>2018-12-27T22:13:40Z</time>
      </trkpt>
      <trkpt lat="36.538330" lon="-118.782830">
        <ele>1355.637</ele>
        <time>2018-12-27T22:14:00Z</time>
      </trkpt>
      <trkpt lat="36.538170" lon="-118.782750">
        <ele>1355.547</ele>
        <time>2018-12-27T22:14:20Z</time>
      </trkpt>
      <trkpt lat="36.538020" lon="-118.782690">
        <ele>1353.241</ele>
        <time>2018-12-27T22:14:40Z</time>
      </trkpt>
      <trkpt lat="36.537690" lon="-118.782590">
        <ele>1350.874</ele>
        <time>2018-12-27T22:15:00Z</time>
      </trkpt>
      <trkpt lat="36.537310" lon="-118.782510">
        <ele>1347.455</ele>
        <time>2018-12-27T22:15:20Z</time>
      </trkpt>
      <trkpt lat="36.537150" lon="-118.782430">
        <ele>1343.078</ele>
        <time>2018-12-27T22:15:40Z</time>
      </trkpt>
      <trkpt lat="36.537040" lon="-118.782390">
        <ele>1341.691</ele>
        <time>2018-12-27T22:16:00Z</time>
      </trkpt>
      <trkpt lat="36.536980" lon="-118.782370">
        <ele>1341.281</ele>
        <time>2018-12-27T22:16:20Z</time>
      </trkpt>
      <trkpt lat="36.536930" lon="-118.782360">
        <ele>1341.219</ele>
        <time>2018-12-27T22:16:40Z</time>
      </trkpt>
      <trkpt lat="36.536850" lon="-118.782350">
        <ele>1341.308</ele>
        <time>2018-12-27T22:17:00Z</time>
      </trkpt>
      <trkpt lat="36.536770" lon="-118.782350">
        <ele>1340.992</ele>
        <time>2018-12-27T22:17:20Z</time>
      </trkpt>
      <trkpt lat="36.536720" lon="-118.782350">
        <ele>1339.760</ele>
        <time>2018-12-27T22:17:40Z</time>
      </trkpt>
      <trkpt lat="36.536630" lon="-118.782350">
        <ele>1337.735</ele>
        <time>2018-12-27T22:18:00Z</time>
      </trkpt>
      <trkpt lat="36.536580" lon="-118.782360">
        <ele>1336.885</ele>
        <time>2018-12-27T22:18:20Z</time>
      </trkpt>
      <trkpt lat="36.536520" lon="-118.782370">
        <ele>1335.149</ele>
        <time>2018-12-27T22:18:40Z</time>
      </trkpt>
      <trkpt lat="36.536450" lon="-118.782400">
        <ele>1331.622</ele>
        <time>2018-12-27T22:19:00Z</time>
      </trkpt>
      <trkpt lat="36.536400" lon="-118.782410">
        <ele>1329.363</ele>
        <time>2018-12-27T22:19:20Z</time>
      </trkpt>
      <trkpt lat="36.536370" lon="-118.782410">
        <ele>1328.166</ele>
        <time>2018-12-27T22:19:40Z</time>
      </trkpt>
      <trkpt lat="36.536340" lon="-118.782420">
        <ele>1326.639</ele>
        <time>2018-12-27T22:20:00Z</time>
      </trkpt>
      <trkpt lat="36.536320" lon="-118.782420">
        <ele>1325.801</ele>
        <time>2018-12-27T22:20:20Z</time>
      </trkpt>
      <trkpt lat="36.536300" lon="-118.782410">
        <ele>1325.321</ele>
        <time>2018-12-27T22:20:40Z</time>
      </trkpt>
      <trkpt lat="36.536290" lon="-118.782410">
        <ele>1324.908</ele>
        <time>2018-12-27T22:21:00Z</time>
      </trkpt>
      <trkpt lat="36.536260" lon="-118.782390">
        <ele>1324.486</ele>
        <time>2018-12-27T22:21:20Z</time>
      </trkpt>
      <trkpt lat="36.536250" lon="-118.782370">
        <ele>1324.794</ele>
        <time>2018-12-27T22:21:40Z</time>
      </trkpt>
      <trkpt lat="36.536240" lon="-118.782350">
        <ele>1324.659</ele>
        <time>2018-12-27T22:22:00Z</time>
      </trkpt>
      <trkpt lat="36.536230" lon="-118.782310">
        <ele>1324.229</ele>
        <time>2018-12-27T22:22:20Z</time>
      </trkpt>
      <trkpt lat="36.536220" lon="-118.782290">
        <ele>1323.853</ele>
        <time>2018-12-27T22:22:40Z</time>
      </trkpt>
      <trkpt lat="36.536220" lon="-118.782270">
        <ele>1323.966</ele>
        <time>2018-12-27T22:23:00Z</time>
      </trkpt>
      <trkpt lat="36.536230" lon="-118.782240">
        <ele>1324.517</ele>
        <time>2018-12-27T22:23:20Z</time>
      </trkpt>
      <trkpt lat="36.536240" lon="-118.782220">
        <ele>1324.980</ele>
        <time>2018-12-27T22:23:40Z</time>
      </trkpt>
      <trkpt lat="36.536250" lon="-118.782210">
        <ele>1325.315</ele>
        <time>2018-12-27T22:24:00Z</time>
      </trkpt>
      <trkpt lat="36.536260" lon="-118.782190">
        <ele>1325.665</ele>
        <time>2018-12-27T22:24:20Z</time>
      </trkpt>
      <trkpt lat="36.536270" lon="-118.782180">
        <ele>1325.911</ele>
        <time>2018-12-27T22:24:40Z</time>
      </trkpt>
      <trkpt lat="36.536290" lon="-118.782170">
        <ele>1326.308</ele>
        <time>2018-12-27T22:25:00Z</time>
      </trkpt>
      <trkpt lat="36.536300" lon="-118.782160">
        <ele>1326.544</ele>
        <time>2018-12-27T22:25:20Z</time>
      </trkpt>
      <trkpt lat="36.536330" lon="-118.782150">
        <ele>1327.182</ele>
        <time>2018-12-27T22:25:40Z</time>
      </trkpt>
      <trkpt lat="36.536350" lon="-118.782140">
        <ele>1327.557</ele>
        <time>2018-12-27T22:26:00Z</time>
      </trkpt>
      <trkpt lat="36.536370" lon="-118.782130">
        <ele>1327.857</ele>
        <time>2018-12-27T22:26:20Z</time>
      </trkpt>
      <trkpt lat="36.536400" lon="-118.782120">
        <ele>1328.341</ele>
        <time>2018-12-27T22:26:40Z</time>
      </trkpt>
      <trkpt lat="36.536430" lon="-118.782120">
        <ele>1328.984</ele>
        <time>2018-12-27T22:27:00Z</time>
      </trkpt>
      <trkpt lat="36.536580" lon="-118.782100">
        <ele>1330.365</ele>
        <time>2018-12-27T22:27:20Z</time>
      </trkpt>
      <trkpt lat="36.536900" lon="-118.782140">
        <ele>1330.348</ele>
        <time>2018-12-27T22:27:40Z</time>
      </trkpt>
      <trkpt lat="36.537080" lon="-118.782160">
        <ele>1328.142</ele>
        <time>2018-12-27T22:28:00Z</time>
      </trkpt>
      <trkpt lat="36.537150" lon="-118.782170">
        <ele>1327.422</ele>
        <time>2018-12-27T22:28:20Z</time>
      </trkpt>
      <trkpt lat="36.537220" lon="-118.782190">
        <ele>1327.414</ele>
        <time>2018-12-27T22:28:40Z</time>
      </trkpt>
      <trkpt lat="36.537320" lon="-118.782220">
        <ele>1327.608</ele>
        <time>2018-12-27T22:29:00Z</time>
      </trkpt>
      <trkpt lat="36.537440" lon="-118.782250">
        <ele>1329.387</ele>
        <time>2018-12-27T22:29:20Z</time>
      </trkpt>
      <trkpt lat="36.537600" lon="-118.782300">
        <ele>1334.625</ele>
        <time>2018-12-27T22:29:40Z</time>
      </trkpt>
      <trkpt lat="36.537670" lon="-118.782330">
        <ele>1336.880</ele>
        <time>2018-12-27T22:30:00Z</time>
      </trkpt>
      <trkpt lat="36.537720" lon="-118.782340">
        <ele>1336.070</ele>
        <time>2018-12-27T22:30:20Z</time>
      </trkpt>
      <trkpt lat="36.537770" lon="-118.782350">
        <ele>1335.174</ele>
        <time>2018-12-27T22:30:40Z</time>
      </trkpt>
      <trkpt lat="36.537820" lon="-118.782360">
        <ele>1334.177</ele>
        <time>2018-12-27T22:31:00Z</time>
      </trkpt>
      <trkpt lat="36.537850" lon="-118.782360">
        <ele>1332.958</ele>
        <time>2018-12-27T22:31:20Z</time>
      </trkpt>
      <trkpt lat="36.537880" lon="-118.782360">
        <ele>1331.871</ele>
        <time>2018-12-27T22:31:40Z</time>
      </trkpt>
      <trkpt lat="36.537940" lon="-118.782350">
        <ele>1329.034</ele>
        <time>2018-12-27T22:32:00Z</time>
      </trkpt>
      <trkpt lat="36.538010" lon="-118.782340">
        <ele>1326.455</ele>
        <time>2018-12-27T22:32:20Z</time>
      </trkpt>
      <trkpt lat="36.538090" lon="-118.782340">
        <ele>1324.210</ele>
        <time>2018-12-27T22:32:40Z</time>
      </trkpt>
      <trkpt lat="36.538150" lon="-118.782340">
        <ele>1322.508</ele>
        <time>2018-12-27T22:33:00Z</time>
      </trkpt>
      <trkpt lat="36.538220" lon="-118.782360">
        <ele>1321.246</ele>
        <time>2018-12-27T22:33:20Z</time>
      </trkpt>
      <trkpt lat="36.538290" lon="-118.782380">
        <ele>1320.324</ele>
        <time>2018-12-27T22:33:40Z</time>
      </trkpt>
      <trkpt lat="36.538320" lon="-118.782390">
        <ele>1320.199</ele>
        <time>2018-12-27T22:34:00Z</time>
      </trkpt>
      <trkpt lat="36.538370" lon="-118.782390">
        <ele>1318.259</ele>
        <time>2018-12-27T22:34:20Z</time>
      </trkpt>
      <trkpt lat="36.538450" lon="-118.782400">
        <ele>1316.293</ele>
        <time>2018-12-27T22:34:40Z</time>
      </trkpt>
      <trkpt lat="36.538490" lon="-118.782410">
        <ele>1315.716</ele>
        <time>2018-12-27T22:35:00Z</time>
      </trkpt>
      <trkpt lat="36.538520" lon="-118.782420">
        <ele>1315.537</ele>
        <time>2018-12-27T22:35:20Z</time>
      </trkpt>
      <trkpt lat="36.538620" lon="-118.782460">
        <ele>1315.010</ele>
        <time>2018-12-27T22:35:40Z</time>
      </trkpt>
      <trkpt lat="36.538670" lon="-118.782490">
        <ele>1315.416</ele>
        <time>2018-12-27T22:36:00Z</time>
      </trkpt>
      <trkpt lat="36.538780" lon="-118.782530">
        <ele>1314.276</ele>
        <time>2018-12-27T22:36:20Z</time>
      </trkpt>
      <trkpt lat="36.538970" lon="-118.782590">
        <ele>1315.213</ele>
        <time>2018-12-27T22:36:40Z</time>
      </trkpt>
      <trkpt lat="36.540020" lon="-118.782790">
        <ele>1309.108</ele>
        <time>2018-12-27T22:37:00Z</time>
      </trkpt>
      <trkpt lat="36.540050" lon="-118.782790">
        <ele>1308.614</ele>
        <time>2018-12-27T22:37:20Z</time>
      </trkpt>
      <trkpt lat="36.540090" lon="-118.782780">
        <ele>1307.562</ele>
        <time>2018-12-27T22:37:40Z</time>
      </trkpt>
      <trkpt lat="36.540110" lon="-118.782770">
        <ele>1306.897</ele>
        <time>2018-12-27T22:38:00Z</time>
      </trkpt>
      <trkpt lat="36.540160" lon="-118.782740">
        <ele>1305.227</ele>
        <time>2018-12-27T22:38:20Z</time>
      </trkpt>
      <trkpt lat="36.540220" lon="-118.782670">
        <ele>1303.311</ele>
        <time>2018-12-27T22:38:40Z</time>
      </trkpt>
      <trkpt lat="36.540250" lon="-118.782620">
        <ele>1302.364</ele>
        <time>2018-12-27T22:39:00Z</time>
      </trkpt>
      <trkpt lat="36.540260" lon="-118.782560">
        <ele>1301.335</ele>
        <time>2018-12-27T22:39:20Z</time>
      </trkpt>
      <trkpt lat="36.540270" lon="-118.782510">
        <ele>1300.628</ele>
        <time>2018-12-27T22:39:40Z</time>
      </trkpt>
      <trkpt lat="36.540280" lon="-118.782420">
        <ele>1299.291</ele>
        <time>2018-12-27T22:40:00Z</time>
      </trkpt>
      <trkpt lat="36.540270" lon="-118.782300">
        <ele>1297.481</ele>
        <time>2018-12-27T22:40:20Z</time>
      </trkpt>
      <trkpt lat="36.540240" lon="-118.782160">
        <ele>1295.519</ele>
        <time>2018-12-27T22:40:40Z</time>
      </trkpt>
      <trkpt lat="36.540210" lon="-118.782060">
        <ele>1293.908</ele>
        <time>2018-12-27T22:41:00Z</time>
      </trkpt>
      <trkpt lat="36.540150" lon="-118.781950">
        <ele>1290.942</ele>
        <time>2018-12-27T22:41:20Z</time>
      </trkpt>
      <trkpt lat="36.540110" lon="-118.781880">
        <ele>1289.220</ele>
        <time>2018-12-27T22:41:40Z</time>
      </trkpt>
      <trkpt lat="36.540050" lon="-118.781810">
        <ele>1287.095</ele>
        <time>2018-12-27T22:42:00Z</time>
      </trkpt>
      <trkpt lat="36.539970" lon="-118.781690">
        <ele>1285.225</ele>
        <time>2018-12-27T22:42:20Z</time>
      </trkpt>
      <trkpt lat="36.539940" lon="-118.781630">
        <ele>1284.789</ele>
        <time>2018-12-27T22:42:40Z</time>
      </trkpt>
      <trkpt lat="36.539910" lon="-118.781550">
        <ele>1284.442</ele>
        <time>2018-12-27T22:43:00Z</time>
      </trkpt>
      <trkpt lat="36.539910" lon="-118.781480">
        <ele>1284.893</ele>
        <time>2018-12-27T22:43:20Z</time>
      </trkpt>
      <trkpt lat="36.539900" lon="-118.781450">
        <ele>1284.676</ele>
        <time>2018-12-27T22:43:40Z</time>
      </trkpt>
      <trkpt lat="36.539910" lon="-118.781410">
        <ele>1285.027</ele>
        <time>2018-12-27T22:44:00Z</time>
      </trkpt>
      <trkpt lat="36.539930" lon="-118.781330">
        <ele>1286.068</ele>
        <time>2018-12-27T22:44:20Z</time>
      </trkpt>
      <trkpt lat="36.539980" lon="-118.781250">
        <ele>1288.214</ele>
        <time>2018-12-27T22:44:40Z</time>
      </trkpt>
      <trkpt lat="36.540000" lon="-118.781200">
        <ele>1288.508</ele>
        <time>2018-12-27T22:45:00Z</time>
      </trkpt>
      <trkpt lat="36.540030" lon="-118.781140">
        <ele>1289.075</ele>
        <time>2018-12-27T22:45:20Z</time>
      </trkpt>
      <trkpt lat="36.540040" lon="-118.781110">
        <ele>1289.043</ele>
        <time>2018-12-27T22:45:40Z</time>
      </trkpt>
      <trkpt lat="36.540050" lon="-118.781080">
        <ele>1289.188</ele>
        <time>2018-12-27T22:46:00Z</time>
      </trkpt>
      <trkpt lat="36.540050" lon="-118.781060">
        <ele>1288.928</ele>
        <time>2018-12-27T22:46:20Z</time>
      </trkpt>
      <trkpt lat="36.540050" lon="-118.781020">
        <ele>1288.562</ele>
        <time>2018-12-27T22:46:40Z</time>
      </trkpt>
      <trkpt lat="36.540030" lon="-118.780960">
        <ele>1287.475</ele>
        <time>2018-12-27T22:47:00Z</time>
      </trkpt>
      <trkpt lat="36.540010" lon="-118.780910">
        <ele>1287.266</ele>
        <time>2018-12-27T22:47:20Z</time>
      </trkpt>
      <trkpt lat="36.539980" lon="-118.780870">
        <ele>1286.489</ele>
        <time>2018-12-27T22:47:40Z</time>
      </trkpt>
      <trkpt lat="36.539890" lon="-118.780770">
        <ele>1283.895</ele>
        <time>2018-12-27T22:48:00Z</time>
      </trkpt>
      <trkpt lat="36.539820" lon="-118.780710">
        <ele>1280.649</ele>
        <time>2018-12-27T22:48:20Z</time>
      </trkpt>
      <trkpt lat="36.539780" lon="-118.780670">
        <ele>1278.623</ele>
        <time>2018-12-27T22:48:40Z</time>
      </trkpt>
      <trkpt lat="36.539740" lon="-118.780630">
        <ele>1276.808</ele>
        <time>2018-12-27T22:49:00Z</time>
      </trkpt>
      <trkpt lat="36.539720" lon="-118.780590">
        <ele>1276.362</ele>
        <time>2018-12-27T22:49:20Z</time>
      </trkpt>
      <trkpt lat="36.539710" lon="-118.780570">
        <ele>1276.050</ele>
        <time>2018-12-27T22:49:40Z</time>
      </trkpt>
      <trkpt lat="36.539700" lon="-118.780550">
        <ele>1275.885</ele>
        <time>2018-12-27T22:50:00Z</time>
      </trkpt>
      <trkpt lat="36.539690" lon="-118.780510">
        <ele>1275.815</ele>
        <time>2018-12-27T22:50:20Z</time>
      </trkpt>
      <trkpt lat="36.539680" lon="-118.780470">
        <ele>1276.059</ele>
        <time>2018-12-27T22:50:40Z</time>
      </trkpt>
      <trkpt lat="36.539680" lon="-118.780420">
        <ele>1276.862</ele>
        <time>2018-12-27T22:51:00Z</time>
      </trkpt>
      <trkpt lat="36.539690" lon="-118.780390">
        <ele>1277.263</ele>
        <time>2018-12-27T22:51:20Z</time>
      </trkpt>
      <trkpt lat="36.539690" lon="-118.780370">
        <ele>1277.146</ele>
        <time>2018-12-27T22:51:40Z</time>
      </trkpt>
      <trkpt lat="36.539700" lon="-118.780340">
        <ele>1277.544</ele>
        <time>2018-12-27T22:52:00Z</time>
      </trkpt>
      <trkpt lat="36.539720" lon="-118.780290">
        <ele>1278.205</ele>
        <time>2018-12-27T22:52:20Z</time>
      </trkpt>
      <trkpt lat="36.539740" lon="-118.780260">
        <ele>1278.915</ele>
        <time>2018-12-27T22:52:40Z</time>
      </trkpt>
      <trkpt lat="36.539750" lon="-118.780240">
        <ele>1279.208</ele>
        <time>2018-12-27T22:53:00Z</time>
      </trkpt>
      <trkpt lat="36.539770" lon="-118.780220">
        <ele>1279.977</ele>
        <time>2018-12-27T22:53:20Z</time>
      </trkpt>
      <trkpt lat="36.539790" lon="-118.780210">
        <ele>1280.675</ele>
        <time>2018-12-27T22:53:40Z</time>
      </trkpt>
      <trkpt lat="36.539810" lon="-118.780200">
        <ele>1281.480</ele>
        <time>2018-12-27T22:54:00Z</time>
      </trkpt>
      <trkpt lat="36.539850" lon="-118.780180">
        <ele>1282.820</ele>
        <time>2018-12-27T22:54:20Z</time>
      </trkpt>
      <trkpt lat="36.539910" lon="-118.780170">
        <ele>1283.394</ele>
        <time>2018-12-27T22:54:40Z</time>
      </trkpt>
      <trkpt lat="36.539970" lon="-118.780160">
        <ele>1283.317</ele>
        <time>2018-12-27T22:55:00Z</time>
      </trkpt>
      <trkpt lat="36.540020" lon="-118.780160">
        <ele>1283.538</ele>
        <time>2018-12-27T22:55:20Z</time>
      </trkpt>
      <trkpt lat="36.540110" lon="-118.780150">
        <ele>1283.321</ele>
        <time>2018-12-27T22:55:40Z</time>
      </trkpt>
      <trkpt lat="36.540170" lon="-118.780150">
        <ele>1284.066</ele>
        <time>2018-12-27T22:56:00Z</time>
      </trkpt>
      <trkpt lat="36.540230" lon="-118.780130">
        <ele>1284.429</ele>
        <time>2018-12-27T22:56:20Z</time>
      </trkpt>
      <trkpt lat="36.540280" lon="-118.780110">
        <ele>1284.521</ele>
        <time>2018-12-27T22:56:40Z</time>
      </trkpt>
      <trkpt lat="36.540350" lon="-118.780090">
        <ele>1285.008</ele>
        <time>2018-12-27T22:57:00Z</time>
      </trkpt>
      <trkpt lat="36.540400" lon="-118.780060">
        <ele>1284.569</ele>
        <time>2018-12-27T22:57:20Z</time>
      </trkpt>
      <trkpt lat="36.540450" lon="-118.780040">
        <ele>1284.417</ele>
        <time>2018-12-27T22:57:40Z</time>
      </trkpt>
      <trkpt lat="36.540590" lon="-118.779980">
        <ele>1283.362</ele>
        <time>2018-12-27T22:58:00Z</time>
      </trkpt>
      <trkpt lat="36.540690" lon="-118.779940">
        <ele>1282.422</ele>
        <time>2018-12-27T22:58:20Z</time>
      </trkpt>
      <trkpt lat="36.540740" lon="-118.779920">
        <ele>1281.536</ele>
        <time>2018-12-27T22:58:40Z</time>
      </trkpt>
      <trkpt lat="36.540800" lon="-118.779900">
        <ele>1280.599</ele>
        <time>2018-12-27T22:59:00Z</time>
      </trkpt>
      <trkpt lat="36.540850" lon="-118.779890">
        <ele>1280.050</ele>
        <time>2018-12-27T22:59:20Z</time>
      </trkpt>
      <trkpt lat="36.540900" lon="-118.779890">
        <ele>1280.273</ele>
        <time>2018-12-27T22:59:40Z</time>
      </trkpt>
      <trkpt lat="36.540940" lon="-118.779880">
        <ele>1279.696</ele>
        <time>2018-12-27T23:00:00Z</time>
      </trkpt>
      <trkpt lat="36.540960" lon="-118.779880">
        <ele>1279.631</ele>
        <time>2018-12-27T23:00:20Z</time>
      </trkpt>
      <trkpt lat="36.541080" lon="-118.779900">
        <ele>1280.324</ele>
        <time>2018-12-27T23:00:40Z</time>
      </trkpt>
      <trkpt lat="36.541170" lon="-118.779910">
        <ele>1280.508</ele>
        <time>2018-12-27T23:01:00Z</time>
      </trkpt>
      <trkpt lat="36.541200" lon="-118.779900">
        <ele>1279.552</ele>
        <time>2018-12-27T23:01:20Z</time>
      </trkpt>
      <trkpt lat="36.541240" lon="-118.779900">
        <ele>1279.290</ele>
        <time>2018-12-27T23:01:40Z</time>
      </trkpt>
      <trkpt lat="36.541290" lon="-118.779890">
        <ele>1278.585</ele>
        <time>2018-12-27T23:02:00Z</time>
      </trkpt>
      <trkpt lat="36.541330" lon="-118.779870">
        <ele>1277.125</ele>
        <time>2018-12-27T23:02:20Z</time>
      </trkpt>
      <trkpt lat="36.541400" lon="-118.779840">
        <ele>1275.949</ele>
        <time>2018-12-27T23:02:40Z</time>
      </trkpt>
      <trkpt lat="36.541440" lon="-118.779800">
        <ele>1274.582</ele>
        <time>2018-12-27T23:03:00Z</time>
      </trkpt>
      <trkpt lat="36.541480" lon="-118.779780">
        <ele>1273.943</ele>
        <time>2018-12-27T23:03:20Z</time>
      </trkpt>
      <trkpt lat="36.541530" lon="-118.779740">
        <ele>1272.616</ele>
        <time>2018-12-27T23:03:40Z</time>
      </trkpt>
      <trkpt lat="36.541580" lon="-118.779710">
        <ele>1271.389</ele>
        <time>2018-12-27T23:04:00Z</time>
      </trkpt>
      <trkpt lat="36.541600" lon="-118.779710">
        <ele>1271.306</ele>
        <time>2018-12-27T23:04:20Z</time>
      </trkpt>
      <trkpt lat="36.541610" lon="-118.779710">
        <ele>1271.226</ele>
        <time>2018-12-27T23:04:40Z</time>
      </trkpt>
      <trkpt lat="36.541620" lon="-118.779700">
        <ele>1270.808</ele>
        <time>2018-12-27T23:05:00Z</time>
      </trkpt>
      <trkpt lat="36.541640" lon="-118.779700">
        <ele>1270.831</ele>
        <time>2018-12-27T23:05:20Z</time>
      </trkpt>
      <trkpt lat="36.541670" lon="-118.779690">
        <ele>1270.439</ele>
        <time>2018-12-27T23:05:40Z</time>
      </trkpt>
      <trkpt lat="36.541710" lon="-118.779690">
        <ele>1270.384</ele>
        <time>2018-12-27T23:06:00Z</time>
      </trkpt>
      <trkpt lat="36.541770" lon="-118.779670">
        <ele>1269.534</ele>
        <time>2018-12-27T23:06:20Z</time>
      </trkpt>
      <trkpt lat="36.541790" lon="-118.779660">
        <ele>1269.178</ele>
        <time>2018-12-27T23:06:40Z</time>
      </trkpt>
      <trkpt lat="36.541810" lon="-118.779640">
        <ele>1268.551</ele>
        <time>2018-12-27T23:07:00Z</time>
      </trkpt>
      <trkpt lat="36.541830" lon="-118.779630">
        <ele>1268.352</ele>
        <time>2018-12-27T23:07:20Z</time>
      </trkpt>
      <trkpt lat="36.541840" lon="-118.779600">
        <ele>1267.345</ele>
        <time>2018-12-27T23:07:40Z</time>
      </trkpt>
      <trkpt lat="36.541860" lon="-118.779570">
        <ele>1266.661</ele>
        <time>2018-12-27T23:08:00Z</time>
      </trkpt>
      <trkpt lat="36.541860" lon="-118.779540">
        <ele>1266.121</ele>
        <time>2018-12-27T23:08:20Z</time>
      </trkpt>
      <trkpt lat="36.541870" lon="-118.779510">
        <ele>1265.713</ele>
        <time>2018-12-27T23:08:40Z</time>
      </trkpt>
      <trkpt lat="36.541870" lon="-118.779480">
        <ele>1265.208</ele>
        <time>2018-12-27T23:09:00Z</time>
      </trkpt>
      <trkpt lat="36.541860" lon="-118.779450">
        <ele>1264.519</ele>
        <time>2018-12-27T23:09:20Z</time>
      </trkpt>
      <trkpt lat="36.541840" lon="-118.779390">
        <ele>1263.077</ele>
        <time>2018-12-27T23:09:40Z</time>
      </trkpt>
      <trkpt lat="36.541830" lon="-118.779330">
        <ele>1261.682</ele>
        <time>2018-12-27T23:10:00Z</time>
      </trkpt>
      <trkpt lat="36.541810" lon="-118.779260">
        <ele>1261.352</ele>
        <time>2018-12-27T23:10:20Z</time>
      </trkpt>
      <trkpt lat="36.541720" lon="-118.779090">
        <ele>1261.066</ele>
        <time>2018-12-27T23:10:40Z</time>
      </trkpt>
      <trkpt lat="36.541450" lon="-118.778690">
        <ele>1257.169</ele>
        <time>2018-12-27T23:11:00Z</time>
      </trkpt>
      <trkpt lat="36.541210" lon="-118.778370">
        <ele>1256.990</ele>
        <time>2018-12-27T23:11:20Z</time>
      </trkpt>
      <trkpt lat="36.541060" lon="-118.778200">
        <ele>1254.063</ele>
        <time>2018-12-27T23:11:40Z</time>
      </trkpt>
      <trkpt lat="36.540820" lon="-118.777970">
        <ele>1247.825</ele>
        <time>2018-12-27T23:12:00Z</time>
      </trkpt>
      <trkpt lat="36.540760" lon="-118.777880">
        <ele>1246.326</ele>
        <time>2018-12-27T23:12:20Z</time>
      </trkpt>
      <trkpt lat="36.540720" lon="-118.777780">
        <ele>1244.408</ele>
        <time>2018-12-27T23:12:40Z</time>
      </trkpt>
      <trkpt lat="36.540690" lon="-118.777720">
        <ele>1242.808</ele>
        <time>2018-12-27T23:13:00Z</time>
      </trkpt>
      <trkpt lat="36.540670" lon="-118.777630">
        <ele>1240.685</ele>
        <time>2018-12-27T23:13:20Z</time>
      </trkpt>
      <trkpt lat="36.540660" lon="-118.777540">
        <ele>1239.073</ele>
        <time>2018-12-27T23:13:40Z</time>
      </trkpt>
      <trkpt lat="36.540640" lon="-118.777450">
        <ele>1236.858</ele>
        <time>2018-12-27T23:14:00Z</time>
      </trkpt>
      <trkpt lat="36.540620" lon="-118.777360">
        <ele>1234.848</ele>
        <time>2018-12-27T23:14:20Z</time>
      </trkpt>
      <trkpt lat="36.540580" lon="-118.777280">
        <ele>1233.992</ele>
        <time>2018-12-27T23:14:40Z</time>
      </trkpt>
      <trkpt lat="36.540540" lon="-118.777220">
        <ele>1232.755</ele>
        <time>2018-12-27T23:15:00Z</time>
      </trkpt>
      <trkpt lat="36.540500" lon="-118.777180">
        <ele>1231.116</ele>
        <time>2018-12-27T23:15:20Z</time>
      </trkpt>
      <trkpt lat="36.540430" lon="-118.777120">
        <ele>1228.379</ele>
        <time>2018-12-27T23:15:40Z</time>
      </trkpt>
      <trkpt lat="36.540330" lon="-118.777070">
        <ele>1227.768</ele>
        <time>2018-12-27T23:16:00Z</time>
      </trkpt>
      <trkpt lat="36.540230" lon="-118.777040">
        <ele>1227.542</ele>
        <time>2018-12-27T23:16:20Z</time>
      </trkpt>
      <trkpt lat="36.540080" lon="-118.777030">
        <ele>1226.226</ele>
        <time>2018-12-27T23:16:40Z</time>
      </trkpt>
      <trkpt lat="36.539930" lon="-118.777010">
        <ele>1225.608</ele>
        <time>2018-12-27T23:17:00Z</time>
      </trkpt>
      <trkpt lat="36.539900" lon="-118.777010">
        <ele>1225.359</ele>
        <time>2018-12-27T23:17:20Z</time>
      </trkpt>
      <trkpt lat="36.539860" lon="-118.777010">
        <ele>1225.067</ele>
        <time>2018-12-27T23:17:40Z</time>
      </trkpt>
      <trkpt lat="36.539810" lon="-118.776990">
        <ele>1224.422</ele>
        <time>2018-12-27T23:18:00Z</time>
      </trkpt>
      <trkpt lat="36.539780" lon="-118.776970">
        <ele>1224.242</ele>
        <time>2018-12-27T23:18:20Z</time>
      </trkpt>
      <trkpt lat="36.539750" lon="-118.776950">
        <ele>1224.156</ele>
        <time>2018-12-27T23:18:40Z</time>
      </trkpt>
      <trkpt lat="36.539720" lon="-118.776910">
        <ele>1224.569</ele>
        <time>2018-12-27T23:19:00Z</time>
      </trkpt>
      <trkpt lat="36.539690" lon="-118.776860">
        <ele>1225.180</ele>
        <time>2018-12-27T23:19:20Z</time>
      </trkpt>
      <trkpt lat="36.539670" lon="-118.776800">
        <ele>1226.383</ele>
        <time>2018-12-27T23:19:40Z</time>
      </trkpt>
      <trkpt lat="36.539660" lon="-118.776750">
        <ele>1227.596</ele>
        <time>2018-12-27T23:20:00Z</time>
      </trkpt>
      <trkpt lat="36.539640" lon="-118.776690">
        <ele>1228.431</ele>
        <time>2018-12-27T23:20:20Z</time>
      </trkpt>
      <trkpt lat="36.539620" lon="-118.776650">
        <ele>1228.524</ele>
        <time>2018-12-27T23:20:40Z</time>
      </trkpt>
      <trkpt lat="36.539600" lon="-118.776610">
        <ele>1228.508</ele>
        <time>2018-12-27T23:21:00Z</time>
      </trkpt>
      <trkpt lat="36.539580" lon="-118.776580">
        <ele>1228.162</ele>
        <time>2018-12-27T23:21:20Z</time>
      </trkpt>
      <trkpt lat="36.539560" lon="-118.776560">
        <ele>1227.990</ele>
        <time>2018-12-27T23:21:40Z</time>
      </trkpt>
      <trkpt lat="36.539530" lon="-118.776550">
        <ele>1227.225</ele>
        <time>2018-12-27T23:22:00Z</time>
      </trkpt>
      <trkpt lat="36.539510" lon="-118.776540">
        <ele>1226.845</ele>
        <time>2018-12-27T23:22:20Z</time>
      </trkpt>
      <trkpt lat="36.539480" lon="-118.776530">
        <ele>1226.279</ele>
        <time>2018-12-27T23:22:40Z</time>
      </trkpt>
      <trkpt lat="36.539400" lon="-118.776500">
        <ele>1224.822</ele>
        <time>2018-12-27T23:23:00Z</time>
      </trkpt>
      <trkpt lat="36.538980" lon="-118.776340">
        <ele>1226.153</ele>
        <time>2018-12-27T23:23:20Z</time>
      </trkpt>
      <trkpt lat="36.538930" lon="-118.776310">
        <ele>1226.536</ele>
        <time>2018-12-27T23:23:40Z</time>
      </trkpt>
      <trkpt lat="36.538900" lon="-118.776300">
        <ele>1226.681</ele>
        <time>2018-12-27T23:24:00Z</time>
      </trkpt>
      <trkpt lat="36.538870" lon="-118.776290">
        <ele>1226.761</ele>
        <time>2018-12-27T23:24:20Z</time>
      </trkpt>
      <trkpt lat="36.538840" lon="-118.776280">
        <ele>1226.717</ele>
        <time>2018-12-27T23:24:40Z</time>
      </trkpt>
      <trkpt lat="36.538820" lon="-118.776280">
        <ele>1226.608</ele>
        <time>2018-12-27T23:25:00Z</time>
      </trkpt>
      <trkpt lat="36.538800" lon="-118.776280">
        <ele>1226.561</ele>
        <time>2018-12-27T23:25:20Z</time>
      </trkpt>
      <trkpt lat="36.538780" lon="-118.776290">
        <ele>1226.259</ele>
        <time>2018-12-27T23:25:40Z</time>
      </trkpt>
      <trkpt lat="36.538760" lon="-118.776300">
        <ele>1225.934</ele>
        <time>2018-12-27T23:26:00Z</time>
      </trkpt>
      <trkpt lat="36.538750" lon="-118.776310">
        <ele>1225.744</ele>
        <time>2018-12-27T23:26:20Z</time>
      </trkpt>
      <trkpt lat="36.538740" lon="-118.776320">
        <ele>1225.318</ele>
        <time>2018-12-27T23:26:40Z</time>
      </trkpt>
      <trkpt lat="36.538730" lon="-118.776330">
        <ele>1224.931</ele>
        <time>2018-12-27T23:27:00Z</time>
      </trkpt>
      <trkpt lat="36.538730" lon="-118.776340">
        <ele>1224.762</ele>
        <time>2018-12-27T23:27:20Z</time>
      </trkpt>
      <trkpt lat="36.538720" lon="-118.776360">
        <ele>1224.025</ele>
        <time>2018-12-27T23:27:40Z</time>
      </trkpt>
      <trkpt lat="36.538720" lon="-118.776370">
        <ele>1223.835</ele>
        <time>2018-12-27T23:28:00Z</time>
      </trkpt>
      <trkpt lat="36.538720" lon="-118.776400">
        <ele>1223.286</ele>
        <time>2018-12-27T23:28:20Z</time>
      </trkpt>
      <trkpt lat="36.538720" lon="-118.776420">
        <ele>1222.814</ele>
        <time>2018-12-27T23:28:40Z</time>
      </trkpt>
      <trkpt lat="36.538720" lon="-118.776440">
        <ele>1222.408</ele>
        <time>2018-12-27T23:29:00Z</time>
      </trkpt>
      <trkpt lat="36.538730" lon="-118.776450">
        <ele>1222.566</ele>
        <time>2018-12-27T23:29:20Z</time>
      </trkpt>
      <trkpt lat="36.538730" lon="-118.776460">
        <ele>1222.314</ele>
        <time>2018-12-27T23:29:40Z</time>
      </trkpt>
      <trkpt lat="36.538740" lon="-118.776470">
        <ele>1222.449</ele>
        <time>2018-12-27T23:30:00Z</time>
      </trkpt>
      <trkpt lat="36.538740" lon="-118.776480">
        <ele>1222.259</ele>
        <time>2018-12-27T23:30:20Z</time>
      </trkpt>
      <trkpt lat="36.538750" lon="-118.776480">
        <ele>1222.553</ele>
        <time>2018-12-27T23:30:40Z</time>
      </trkpt>
      <trkpt lat="36.538770" lon="-118.776490">
        <ele>1222.476</ele>
        <time>2018-12-27T23:31:00Z</time>
      </trkpt>
      <trkpt lat="36.538780" lon="-118.776500">
        <ele>1222.257</ele>
        <time>2018-12-27T23:31:20Z</time>
      </trkpt>
      <trkpt lat="36.539230" lon="-118.776650">
        <ele>1216.640</ele>
        <time>2018-12-27T23:31:40Z</time>
      </trkpt>
      <trkpt lat="36.539270" lon="-118.776670">
        <ele>1216.797</ele>
        <time>2018-12-27T23:32:00Z</time>
      </trkpt>
      <trkpt lat="36.539290" lon="-118.776670">
        <ele>1217.123</ele>
        <time>2018-12-27T23:32:20Z</time>
      </trkpt>
      <trkpt lat="36.539300" lon="-118.776680">
        <ele>1217.125</ele>
        <time>2018-12-27T23:32:40Z</time>
      </trkpt>
      <trkpt lat="36.539340" lon="-118.776690">
        <ele>1218.108</ele>
        <time>2018-12-27T23:33:00Z</time>
      </trkpt>
      <trkpt lat="36.539370" lon="-118.776710">
        <ele>1218.562</ele>
        <time>2018-12-27T23:33:20Z</time>
      </trkpt>
      <trkpt lat="36.539400" lon="-118.776750">
        <ele>1218.550</ele>
        <time>2018-12-27T23:33:40Z</time>
      </trkpt>
      <trkpt lat="36.539410" lon="-118.776780">
        <ele>1218.285</ele>
        <time>2018-12-27T23:34:00Z</time>
      </trkpt>
      <trkpt lat="36.539420" lon="-118.776820">
        <ele>1217.655</ele>
        <time>2018-12-27T23:34:20Z</time>
      </trkpt>
      <trkpt lat="36.539430" lon="-118.776860">
        <ele>1217.019</ele>
        <time>2018-12-27T23:34:40Z</time>
      </trkpt>
      <trkpt lat="36.539430" lon="-118.776910">
        <ele>1215.862</ele>
        <time>2018-12-27T23:35:00Z</time>
      </trkpt>
      <trkpt lat="36.539430" lon="-118.776970">
        <ele>1214.533</ele>
        <time>2018-12-27T23:35:20Z</time>
      </trkpt>
      <trkpt lat="36.539430" lon="-118.777030">
        <ele>1213.146</ele>
        <time>2018-12-27T23:35:40Z</time>
      </trkpt>
      <trkpt lat="36.539450" lon="-118.777080">
        <ele>1212.546</ele>
        <time>2018-12-27T23:36:00Z</time>
      </trkpt>
      <trkpt lat="36.539470" lon="-118.777150">
        <ele>1210.888</ele>
        <time>2018-12-27T23:36:20Z</time>
      </trkpt>
      <trkpt lat="36.539490" lon="-118.777190">
        <ele>1210.016</ele>
        <time>2018-12-27T23:36:40Z</time>
      </trkpt>
      <trkpt lat="36.539510" lon="-118.777220">
        <ele>1209.608</ele>
        <time>2018-12-27T23:37:00Z</time>
      </trkpt>
      <trkpt lat="36.539530" lon="-118.777240">
        <ele>1209.597</ele>
        <time>2018-12-27T23:37:20Z</time>
      </trkpt>
      <trkpt lat="36.539550" lon="-118.777260">
        <ele>1209.455</ele>
        <time>2018-12-27T23:37:40Z</time>
      </trkpt>
      <trkpt lat="36.539570" lon="-118.777280">
        <ele>1209.340</ele>
        <time>2018-12-27T23:38:00Z</time>
      </trkpt>
      <trkpt lat="36.539590" lon="-118.777300">
        <ele>1209.240</ele>
        <time>2018-12-27T23:38:20Z</time>
      </trkpt>
      <trkpt lat="36.539620" lon="-118.777320">
        <ele>1209.444</ele>
        <time>2018-12-27T23:38:40Z</time>
      </trkpt>
      <trkpt lat="36.539650" lon="-118.777330">
        <ele>1209.967</ele>
        <time>2018-12-27T23:39:00Z</time>
      </trkpt>
      <trkpt lat="36.539720" lon="-118.777350">
        <ele>1211.368</ele>
        <time>2018-12-27T23:39:20Z</time>
      </trkpt>
      <trkpt lat="36.539770" lon="-118.777370">
        <ele>1212.211</ele>
        <time>2018-12-27T23:39:40Z</time>
      </trkpt>
      <trkpt lat="36.539850" lon="-118.777380">
        <ele>1214.387</ele>
        <time>2018-12-27T23:40:00Z</time>
      </trkpt>
      <trkpt lat="36.539950" lon="-118.777400">
        <ele>1215.142</ele>
        <time>2018-12-27T23:40:20Z</time>
      </trkpt>
      <trkpt lat="36.539980" lon="-118.777410">
        <ele>1215.226</ele>
        <time>2018-12-27T23:40:40Z</time>
      </trkpt>
      <trkpt lat="36.540030" lon="-118.777410">
        <ele>1215.608</ele>
        <time>2018-12-27T23:41:00Z</time>
      </trkpt>
      <trkpt lat="36.540070" lon="-118.777430">
        <ele>1215.641</ele>
        <time>2018-12-27T23:41:20Z</time>
      </trkpt>
      <trkpt lat="36.540110" lon="-118.777440">
        <ele>1215.849</ele>
        <time>2018-12-27T23:41:40Z</time>
      </trkpt>
      <trkpt lat="36.540130" lon="-118.777450">
        <ele>1215.774</ele>
        <time>2018-12-27T23:42:00Z</time>
      </trkpt>
      <trkpt lat="36.540160" lon="-118.777470">
        <ele>1215.914</ele>
        <time>2018-12-27T23:42:20Z</time>
      </trkpt>
      <trkpt lat="36.540180" lon="-118.777500">
        <ele>1215.898</ele>
        <time>2018-12-27T23:42:40Z</time>
      </trkpt>
      <trkpt lat="36.540190" lon="-118.777520">
        <ele>1215.781</ele>
        <time>2018-12-27T23:43:00Z</time>
      </trkpt>
      <trkpt lat="36.540190" lon="-118.777540">
        <ele>1215.462</ele>
        <time>2018-12-27T23:43:20Z</time>
      </trkpt>
      <trkpt lat="36.540200" lon="-118.777560">
        <ele>1215.325</ele>
        <time>2018-12-27T23:43:40Z</time>
      </trkpt>
      <trkpt lat="36.540200" lon="-118.777590">
        <ele>1214.869</ele>
        <time>2018-12-27T23:44:00Z</time>
      </trkpt>
      <trkpt lat="36.540200" lon="-118.777610">
        <ele>1214.504</ele>
        <time>2018-12-27T23:44:20Z</time>
      </trkpt>
      <trkpt lat="36.540190" lon="-118.777630">
        <ele>1213.824</ele>
        <time>2018-12-27T23:44:40Z</time>
      </trkpt>
      <trkpt lat="36.540190" lon="-118.777640">
        <ele>1213.608</ele>
        <time>2018-12-27T23:45:00Z</time>
      </trkpt>
      <trkpt lat="36.540180" lon="-118.777650">
        <ele>1213.169</ele>
        <time>2018-12-27T23:45:20Z</time>
      </trkpt>
      <trkpt lat="36.540180" lon="-118.777670">
        <ele>1213.087</ele>
        <time>2018-12-27T23:45:40Z</time>
      </trkpt>
      <trkpt lat="36.540160" lon="-118.777690">
        <ele>1211.992</ele>
        <time>2018-12-27T23:46:00Z</time>
      </trkpt>
      <trkpt lat="36.540150" lon="-118.777690">
        <ele>1211.432</ele>
        <time>2018-12-27T23:46:20Z</time>
      </trkpt>
      <trkpt lat="36.540130" lon="-118.777700">
        <ele>1210.626</ele>
        <time>2018-12-27T23:46:40Z</time>
      </trkpt>
      <trkpt lat="36.540120" lon="-118.777710">
        <ele>1210.289</ele>
        <time>2018-12-27T23:47:00Z</time>
      </trkpt>
      <trkpt lat="36.540110" lon="-118.777710">
        <ele>1210.020</ele>
        <time>2018-12-27T23:47:20Z</time>
      </trkpt>
      <trkpt lat="36.540100" lon="-118.777710">
        <ele>1209.923</ele>
        <time>2018-12-27T23:47:40Z</time>
      </trkpt>
      <trkpt lat="36.540080" lon="-118.777710">
        <ele>1209.523</ele>
        <time>2018-12-27T23:48:00Z</time>
      </trkpt>
      <trkpt lat="36.540050" lon="-118.777700">
        <ele>1209.383</ele>
        <time>2018-12-27T23:48:20Z</time>
      </trkpt>
      <trkpt lat="36.540010" lon="-118.777680">
        <ele>1209.311</ele>
        <time>2018-12-27T23:48:40Z</time>
      </trkpt>
      <trkpt lat="36.539930" lon="-118.777640">
        <ele>1209.908</ele>
        <time>2018-12-27T23:49:00Z</time>
      </trkpt>
      <trkpt lat="36.539870" lon="-118.777620">
        <ele>1209.815</ele>
        <time>2018-12-27T23:49:20Z</time>
      </trkpt>
      <trkpt lat="36.539810" lon="-118.777590">
        <ele>1209.093</ele>
        <time>2018-12-27T23:49:40Z</time>
      </trkpt>
      <trkpt lat="36.539730" lon="-118.777560">
        <ele>1207.548</ele>
        <time>2018-12-27T23:50:00Z</time>
      </trkpt>
      <trkpt lat="36.539580" lon="-118.777510">
        <ele>1204.478</ele>
        <time>2018-12-27T23:50:20Z</time>
      </trkpt>
      <trkpt lat="36.539480" lon="-118.777480">
        <ele>1201.892</ele>
        <time>2018-12-27T23:50:40Z</time>
      </trkpt>
      <trkpt lat="36.539440" lon="-118.777460">
        <ele>1201.045</ele>
        <time>2018-12-27T23:51:00Z</time>
      </trkpt>
      <trkpt lat="36.539410" lon="-118.777450">
        <ele>1200.466</ele>
        <time>2018-12-27T23:51:20Z</time>
      </trkpt>
      <trkpt lat="36.539380" lon="-118.777430">
        <ele>1200.079</ele>
        <time>2018-12-27T23:51:40Z</time>
      </trkpt>
      <trkpt lat="36.539350" lon="-118.777410">
        <ele>1199.674</ele>
        <time>2018-12-27T23:52:00Z</time>
      </trkpt>
      <trkpt lat="36.539320" lon="-118.777390">
        <ele>1199.356</ele>
        <time>2018-12-27T23:52:20Z</time>
      </trkpt>
      <trkpt lat="36.539310" lon="-118.777360">
        <ele>1199.921</ele>
        <time>2018-12-27T23:52:40Z</time>
      </trkpt>
      <trkpt lat="36.539280" lon="-118.777320">
        <ele>1200.108</ele>
        <time>2018-12-27T23:53:00Z</time>
      </trkpt>
      <trkpt lat="36.539250" lon="-118.777270">
        <ele>1200.370</ele>
        <time>2018-12-27T23:53:20Z</time>
      </trkpt>
      <trkpt lat="36.539230" lon="-118.777190">
        <ele>1201.678</ele>
        <time>2018-12-27T23:53:40Z</time>
      </trkpt>
      <trkpt lat="36.539200" lon="-118.777130">
        <ele>1201.743</ele>
        <time>2018-12-27T23:54:00Z</time>
      </trkpt>
      <trkpt lat="36.539190" lon="-118.777080">
        <ele>1202.493</ele>
        <time>2018-12-27T23:54:20Z</time>
      </trkpt>
      <trkpt lat="36.539170" lon="-118.777040">
        <ele>1202.217</ele>
        <time>2018-12-27T23:54:40Z</time>
      </trkpt>
      <trkpt lat="36.539140" lon="-118.777000">
        <ele>1201.660</ele>
        <time>2018-12-27T23:55:00Z</time>
      </trkpt>
      <trkpt lat="36.539120" lon="-118.776980">
        <ele>1201.171</ele>
        <time>2018-12-27T23:55:20Z</time>
      </trkpt>
      <trkpt lat="36.539090" lon="-118.776960">
        <ele>1200.174</ele>
        <time>2018-12-27T23:55:40Z</time>
      </trkpt>
      <trkpt lat="36.539070" lon="-118.776940">
        <ele>1199.627</ele>
        <time>2018-12-27T23:56:00Z</time>
      </trkpt>
      <trkpt lat="36.539040" lon="-118.776930">
        <ele>1198.468</ele>
        <time>2018-12-27T23:56:20Z</time>
      </trkpt>
      <trkpt lat="36.539000" lon="-118.776920">
        <ele>1197.614</ele>
        <time>2018-12-27T23:56:40Z</time>
      </trkpt>
      <trkpt lat="36.538960" lon="-118.776920">
        <ele>1197.008</ele>
        <time>2018-12-27T23:57:00Z</time>
      </trkpt>
      <trkpt lat="36.538920" lon="-118.776920">
        <ele>1196.425</ele>
        <time>2018-12-27T23:57:20Z</time>
      </trkpt>
      <trkpt lat="36.538870" lon="-118.776930">
        <ele>1195.393</ele>
        <time>2018-12-27T23:57:40Z</time>
      </trkpt>
      <trkpt lat="36.538810" lon="-118.776940">
        <ele>1194.038</ele>
        <time>2018-12-27T23:58:00Z</time>
      </trkpt>
      <trkpt lat="36.538740" lon="-118.776960">
        <ele>1192.048</ele>
        <time>2018-12-27T23:58:20Z</time>
      </trkpt>
      <trkpt lat="36.538700" lon="-118.776970">
        <ele>1191.342</ele>
        <time>2018-12-27T23:58:40Z</time>
      </trkpt>
      <trkpt lat="36.538660" lon="-118.776980">
        <ele>1190.535</ele>
        <time>2018-12-27T23:59:00Z</time>
      </trkpt>
      <trkpt lat="36.538620" lon="-118.776980">
        <ele>1190.256</ele>
        <time>2018-12-27T23:59:20Z</time>
      </trkpt>
      <trkpt lat="36.538580" lon="-118.776980">
        <ele>1189.829</ele>
        <time>2018-12-27T23:59:40Z</time>
      </trkpt>
      <trkpt lat="36.538530" lon="-118.776980">
        <ele>1189.486</ele>
        <time>2018-12-28T00:00:00Z</time>
      </trkpt>
      <trkpt lat="36.538490" lon="-118.776960">
        <ele>1189.760</ele>
        <time>2018-12-28T00:00:20Z</time>
      </trkpt>
      <trkpt lat="36.538440" lon="-118.776930">
        <ele>1189.826</ele>
        <time>2018-12-28T00:00:40Z</time>
      </trkpt>
      <trkpt lat="36.538380" lon="-118.776900">
        <ele>1189.608</ele>
        <time>2018-12-28T00:01:00Z</time>
      </trkpt>
      <trkpt lat="36.538320" lon="-118.776860">
        <ele>1189.821</ele>
        <time>2018-12-28T00:01:20Z</time>
      </trkpt>
      <trkpt lat="36.538250" lon="-118.776800">
        <ele>1190.659</ele>
        <time>2018-12-28T00:01:40Z</time>
      </trkpt>
      <trkpt lat="36.538170" lon="-118.776760">
        <ele>1190.554</ele>
        <time>2018-12-28T00:02:00Z</time>
      </trkpt>
      <trkpt lat="36.538120" lon="-118.776740">
        <ele>1190.284</ele>
        <time>2018-12-28T00:02:20Z</time>
      </trkpt>
      <trkpt lat="36.538070" lon="-118.776730">
        <ele>1189.618</ele>
        <time>2018-12-28T00:02:40Z</time>
      </trkpt>
      <trkpt lat="36.538020" lon="-118.776720">
        <ele>1189.071</ele>
        <time>2018-12-28T00:03:00Z</time>
      </trkpt>
      <trkpt lat="36.537970" lon="-118.776720">
        <ele>1188.112</ele>
        <time>2018-12-28T00:03:20Z</time>
      </trkpt>
      <trkpt lat="36.537910" lon="-118.776720">
        <ele>1186.975</ele>
        <time>2018-12-28T00:03:40Z</time>
      </trkpt>
      <trkpt lat="36.537890" lon="-118.776720">
        <ele>1186.635</ele>
        <time>2018-12-28T00:04:00Z</time>
      </trkpt>
      <trkpt lat="36.537860" lon="-118.776720">
        <ele>1186.186</ele>
        <time>2018-12-28T00:04:20Z</time>
      </trkpt>
      <trkpt lat="36.537830" lon="-118.776710">
        <ele>1185.914</ele>
        <time>2018-12-28T00:04:40Z</time>
      </trkpt>
      <trkpt lat="36.537800" lon="-118.776700">
        <ele>1185.708</ele>
        <time>2018-12-28T00:05:00Z</time>
      </trkpt>
      <trkpt lat="36.537770" lon="-118.776690">
        <ele>1185.656</ele>
        <time>2018-12-28T00:05:20Z</time>
      </trkpt>
      <trkpt lat="36.537750" lon="-118.776670">
        <ele>1185.934</ele>
        <time>2018-12-28T00:05:40Z</time>
      </trkpt>
      <trkpt lat="36.537710" lon="-118.776640">
        <ele>1186.269</ele>
        <time>2018-12-28T00:06:00Z</time>
      </trkpt>
      <trkpt lat="36.537660" lon="-118.776600">
        <ele>1186.769</ele>
        <time>2018-12-28T00:06:20Z</time>
      </trkpt>
      <trkpt lat="36.537630" lon="-118.776560">
        <ele>1187.393</ele>
        <time>2018-12-28T00:06:40Z</time>
      </trkpt>
      <trkpt lat="36.537570" lon="-118.776480">
        <ele>1187.416</ele>
        <time>2018-12-28T00:07:00Z</time>
      </trkpt>
      <trkpt lat="36.537520" lon="-118.776410">
        <ele>1187.067</ele>
        <time>2018-12-28T00:07:20Z</time>
      </trkpt>
      <trkpt lat="36.537490" lon="-118.776350">
        <ele>1186.920</ele>
        <time>2018-12-28T00:07:40Z</time>
      </trkpt>
      <trkpt lat="36.537470" lon="-118.776280">
        <ele>1187.248</ele>
        <time>2018-12-28T00:08:00Z</time>
      </trkpt>
      <trkpt lat="36.537470" lon="-118.776210">
        <ele>1187.861</ele>
        <time>2018-12-28T00:08:20Z</time>
      </trkpt>
      <trkpt lat="36.537480" lon="-118.776140">
        <ele>1188.517</ele>
        <time>2018-12-28T00:08:40Z</time>
      </trkpt>
      <trkpt lat="36.537500" lon="-118.776080">
        <ele>1189.608</ele>
        <time>2018-12-28T00:09:00Z</time>
      </trkpt>
      <trkpt lat="36.537540" lon="-118.775980">
        <ele>1191.937</ele>
        <time>2018-12-28T00:09:20Z</time>
      </trkpt>
      <trkpt lat="36.537610" lon="-118.775820">
        <ele>1191.555</ele>
        <time>2018-12-28T00:09:40Z</time>
      </trkpt>
      <trkpt lat="36.537650" lon="-118.775750">
        <ele>1192.040</ele>
        <time>2018-12-28T00:10:00Z</time>
      </trkpt>
      <trkpt lat="36.537720" lon="-118.775620">
        <ele>1191.990</ele>
        <time>2018-12-28T00:10:20Z</time>
      </trkpt>
      <trkpt lat="36.537810" lon="-118.775470">
        <ele>1191.024</ele>
        <time>2018-12-28T00:10:40Z</time>
      </trkpt>
      <trkpt lat="36.537860" lon="-118.775350">
        <ele>1190.167</ele>
        <time>2018-12-28T00:11:00Z</time>
      </trkpt>
      <trkpt lat="36.537870" lon="-118.775320">
        <ele>1190.048</ele>
        <time>2018-12-28T00:11:20Z</time>
      </trkpt>
      <trkpt lat="36.537880" lon="-118.775280">
        <ele>1189.691</ele>
        <time>2018-12-28T00:11:40Z</time>
      </trkpt>
      <trkpt lat="36.537890" lon="-118.775240">
        <ele>1189.317</ele>
        <time>2018-12-28T00:12:00Z</time>
      </trkpt>
      <trkpt lat="36.537900" lon="-118.775180">
        <ele>1188.687</ele>
        <time>2018-12-28T00:12:20Z</time>
      </trkpt>
      <trkpt lat="36.537910" lon="-118.775120">
        <ele>1188.015</ele>
        <time>2018-12-28T00:12:40Z</time>
      </trkpt>
      <trkpt lat="36.537920" lon="-118.775030">
        <ele>1187.508</ele>
        <time>2018-12-28T00:13:00Z</time>
      </trkpt>
      <trkpt lat="36.537920" lon="-118.774960">
        <ele>1186.614</ele>
        <time>2018-12-28T00:13:20Z</time>
      </trkpt>
      <trkpt lat="36.537920" lon="-118.774930">
        <ele>1186.392</ele>
        <time>2018-12-28T00:13:40Z</time>
      </trkpt>
      <trkpt lat="36.537920" lon="-118.774890">
        <ele>1185.877</ele>
        <time>2018-12-28T00:14:00Z</time>
      </trkpt>
      <trkpt lat="36.537910" lon="-118.774830">
        <ele>1184.577</ele>
        <time>2018-12-28T00:14:20Z</time>
      </trkpt>
      <trkpt lat="36.537900" lon="-118.774750">
        <ele>1182.961</ele>
        <time>2018-12-28T00:14:40Z</time>
      </trkpt>
      <trkpt lat="36.537870" lon="-118.774640">
        <ele>1180.354</ele>
        <time>2018-12-28T00:15:00Z</time>
      </trkpt>
      <trkpt lat="36.537860" lon="-118.774600">
        <ele>1179.585</ele>
        <time>2018-12-28T00:15:20Z</time>
      </trkpt>
      <trkpt lat="36.537850" lon="-118.774560">
        <ele>1179.378</ele>
        <time>2018-12-28T00:15:40Z</time>
      </trkpt>
      <trkpt lat="36.537840" lon="-118.774520">
        <ele>1179.479</ele>
        <time>2018-12-28T00:16:00Z</time>
      </trkpt>
      <trkpt lat="36.537820" lon="-118.774500">
        <ele>1179.005</ele>
        <time>2018-12-28T00:16:20Z</time>
      </trkpt>
      <trkpt lat="36.537810" lon="-118.774480">
        <ele>1179.025</ele>
        <time>2018-12-28T00:16:40Z</time>
      </trkpt>
      <trkpt lat="36.537790" lon="-118.774460">
        <ele>1178.708</ele>
        <time>2018-12-28T00:17:00Z</time>
      </trkpt>
      <trkpt lat="36.537760" lon="-118.774440">
        <ele>1178.340</ele>
        <time>2018-12-28T00:17:20Z</time>
      </trkpt>
      <trkpt lat="36.537730" lon="-118.774420">
        <ele>1177.958</ele>
        <time>2018-12-28T00:17:40Z</time>
      </trkpt>
      <trkpt lat="36.537710" lon="-118.774410">
        <ele>1177.733</ele>
        <time>2018-12-28T00:18:00Z</time>
      </trkpt>
      <trkpt lat="36.537630" lon="-118.774400">
        <ele>1176.353</ele>
        <time>2018-12-28T00:18:20Z</time>
      </trkpt>
      <trkpt lat="36.537550" lon="-118.774400">
        <ele>1176.417</ele>
        <time>2018-12-28T00:18:40Z</time>
      </trkpt>
      <trkpt lat="36.537480" lon="-118.774410">
        <ele>1176.170</ele>
        <time>2018-12-28T00:19:00Z</time>
      </trkpt>
      <trkpt lat="36.537390" lon="-118.774430">
        <ele>1175.631</ele>
        <time>2018-12-28T00:19:20Z</time>
      </trkpt>
      <trkpt lat="36.537330" lon="-118.774440">
        <ele>1175.294</ele>
        <time>2018-12-28T00:19:40Z</time>
      </trkpt>
      <trkpt lat="36.537270" lon="-118.774440">
        <ele>1174.979</ele>
        <time>2018-12-28T00:20:00Z</time>
      </trkpt>
      <trkpt lat="36.537230" lon="-118.774450">
        <ele>1174.505</ele>
        <time>2018-12-28T00:20:20Z</time>
      </trkpt>
      <trkpt lat="36.537180" lon="-118.774450">
        <ele>1174.225</ele>
        <time>2018-12-28T00:20:40Z</time>
      </trkpt>
      <trkpt lat="36.537130" lon="-118.774440">
        <ele>1174.108</ele>
        <time>2018-12-28T00:21:00Z</time>
      </trkpt>
      <trkpt lat="36.537100" lon="-118.774430">
        <ele>1174.160</ele>
        <time>2018-12-28T00:21:20Z</time>
      </trkpt>
      <trkpt lat="36.537070" lon="-118.774410">
        <ele>1174.018</ele>
        <time>2018-12-28T00:21:40Z</time>
      </trkpt>
      <trkpt lat="36.537020" lon="-118.774380">
        <ele>1173.283</ele>
        <time>2018-12-28T00:22:00Z</time>
      </trkpt>
      <trkpt lat="36.536950" lon="-118.774320">
        <ele>1171.913</ele>
        <time>2018-12-28T00:22:20Z</time>
      </trkpt>
      <trkpt lat="36.536870" lon="-118.774240">
        <ele>1170.567</ele>
        <time>2018-12-28T00:22:40Z</time>
      </trkpt>
      <trkpt lat="36.536820" lon="-118.774200">
        <ele>1169.270</ele>
        <time>2018-12-28T00:23:00Z</time>
      </trkpt>
      <trkpt lat="36.536770" lon="-118.774170">
        <ele>1168.561</ele>
        <time>2018-12-28T00:23:20Z</time>
      </trkpt>
      <trkpt lat="36.536730" lon="-118.774150">
        <ele>1168.374</ele>
        <time>2018-12-28T00:23:40Z</time>
      </trkpt>
      <trkpt lat="36.536690" lon="-118.774150">
        <ele>1167.927</ele>
        <time>2018-12-28T00:24:00Z</time>
      </trkpt>
      <trkpt lat="36.536650" lon="-118.774150">
        <ele>1167.568</ele>
        <time>2018-12-28T00:24:20Z</time>
      </trkpt>
      <trkpt lat="36.536620" lon="-118.774150">
        <ele>1167.214</ele>
        <time>2018-12-28T00:24:40Z</time>
      </trkpt>
      <trkpt lat="36.536590" lon="-118.774160">
        <ele>1166.608</ele>
        <time>2018-12-28T00:25:00Z</time>
      </trkpt>
      <trkpt lat="36.536570" lon="-118.774170">
        <ele>1166.175</ele>
        <time>2018-12-28T00:25:20Z</time>
      </trkpt>
      <trkpt lat="36.536540" lon="-118.774180">
        <ele>1165.423</ele>
        <time>2018-12-28T00:25:40Z</time>
      </trkpt>
      <trkpt lat="36.536490" lon="-118.774210">
        <ele>1164.548</ele>
        <time>2018-12-28T00:26:00Z</time>
      </trkpt>
      <trkpt lat="36.536450" lon="-118.774240">
        <ele>1163.818</ele>
        <time>2018-12-28T00:26:20Z</time>
      </trkpt>
      <trkpt lat="36.536400" lon="-118.774270">
        <ele>1163.222</ele>
        <time>2018-12-28T00:26:40Z</time>
      </trkpt>
      <trkpt lat="36.536310" lon="-118.774330">
        <ele>1161.815</ele>
        <time>2018-12-28T00:27:00Z</time>
      </trkpt>
      <trkpt lat="36.536250" lon="-118.774370">
        <ele>1160.586</ele>
        <time>2018-12-28T00:27:20Z</time>
      </trkpt>
      <trkpt lat="36.536200" lon="-118.774400">
        <ele>1159.639</ele>
        <time>2018-12-28T00:27:40Z</time>
      </trkpt>
      <trkpt lat="36.536150" lon="-118.774420">
        <ele>1159.215</ele>
        <time>2018-12-28T00:28:00Z</time>
      </trkpt>
      <trkpt lat="36.536120" lon="-118.774440">
        <ele>1158.665</ele>
        <time>2018-12-28T00:28:20Z</time>
      </trkpt>
      <trkpt lat="36.536090" lon="-118.774450">
        <ele>1158.411</ele>
        <time>2018-12-28T00:28:40Z</time>
      </trkpt>
      <trkpt lat="36.536050" lon="-118.774470">
        <ele>1157.908</ele>
        <time>2018-12-28T00:29:00Z</time>
      </trkpt>
      <trkpt lat="36.535990" lon="-118.774490">
        <ele>1157.764</ele>
        <time>2018-12-28T00:29:20Z</time>
      </trkpt>
      <trkpt lat="36.535840" lon="-118.774520">
        <ele>1156.522</ele>
        <time>2018-12-28T00:29:40Z</time>
      </trkpt>
      <trkpt lat="36.535680" lon="-118.774550">
        <ele>1155.037</ele>
        <time>2018-12-28T00:30:00Z</time>
      </trkpt>
      <trkpt lat="36.535570" lon="-118.774560">
        <ele>1152.927</ele>
        <time>2018-12-28T00:30:20Z</time>
      </trkpt>
      <trkpt lat="36.535510" lon="-118.774560">
        <ele>1152.021</ele>
        <time>2018-12-28T00:30:40Z</time>
      </trkpt>
      <trkpt lat="36.535440" lon="-118.774550">
        <ele>1151.154</ele>
        <time>2018-12-28T00:31:00Z</time>
      </trkpt>
      <trkpt lat="36.535400" lon="-118.774540">
        <ele>1150.815</ele>
        <time>2018-12-28T00:31:20Z</time>
      </trkpt>
      <trkpt lat="36.535360" lon="-118.774530">
        <ele>1150.748</ele>
        <time>2018-12-28T00:31:40Z</time>
      </trkpt>
      <trkpt lat="36.535340" lon="-118.774530">
        <ele>1150.532</ele>
        <time>2018-12-28T00:32:00Z</time>
      </trkpt>
      <trkpt lat="36.535260" lon="-118.774500">
        <ele>1150.492</ele>
        <time>2018-12-28T00:32:20Z</time>
      </trkpt>
      <trkpt lat="36.535160" lon="-118.774470">
        <ele>1150.111</ele>
        <time>2018-12-28T00:32:40Z</time>
      </trkpt>
      <trkpt lat="36.535090" lon="-118.774430">
        <ele>1150.008</ele>
        <time>2018-12-28T00:33:00Z</time>
      </trkpt>
      <trkpt lat="36.534980" lon="-118.774390">
        <ele>1149.186</ele>
        <time>2018-12-28T00:33:20Z</time>
      </trkpt>
      <trkpt lat="36.534930" lon="-118.774360">
        <ele>1149.174</ele>
        <time>2018-12-28T00:33:40Z</time>
      </trkpt>
      <trkpt lat="36.534850" lon="-118.774310">
        <ele>1149.239</ele>
        <time>2018-12-28T00:34:00Z</time>
      </trkpt>
      <trkpt lat="36.534500" lon="-118.774070">
        <ele>1144.279</ele>
        <time>2018-12-28T00:34:20Z</time>
      </trkpt>
      <trkpt lat="36.534370" lon="-118.773980">
        <ele>1141.023</ele>
        <time>2018-12-28T00:34:40Z</time>
      </trkpt>
      <trkpt lat="36.534340" lon="-118.773940">
        <ele>1140.516</ele>
        <time>2018-12-28T00:35:00Z</time>
      </trkpt>
      <trkpt lat="36.534300" lon="-118.773900">
        <ele>1139.787</ele>
        <time>2018-12-28T00:35:20Z</time>
      </trkpt>
      <trkpt lat="36.534260" lon="-118.773850">
        <ele>1139.570</ele>
        <time>2018-12-28T00:35:40Z</time>
      </trkpt>
      <trkpt lat="36.534220" lon="-118.773790">
        <ele>1139.789</ele>
        <time>2018-12-28T00:36:00Z</time>
      </trkpt>
      <trkpt lat="36.534180" lon="-118.773730">
        <ele>1139.706</ele>
        <time>2018-12-28T00:36:20Z</time>
      </trkpt>
      <trkpt lat="36.534160" lon="-118.773640">
        <ele>1140.126</ele>
        <time>2018-12-28T00:36:40Z</time>
      </trkpt>
      <trkpt lat="36.534140" lon="-118.773580">
        <ele>1140.008</ele>
        <time>2018-12-28T00:37:00Z</time>
      </trkpt>
      <trkpt lat="36.534130" lon="-118.773510">
        <ele>1140.331</ele>
        <time>2018-12-28T00:37:20Z</time>
      </trkpt>
      <trkpt lat="36.534100" lon="-118.773350">
        <ele>1139.939</ele>
        <time>2018-12-28T00:37:40Z</time>
      </trkpt>
      <trkpt lat="36.534090" lon="-118.773290">
        <ele>1139.664</ele>
        <time>2018-12-28T00:38:00Z</time>
      </trkpt>
      <trkpt lat="36.534070" lon="-118.773200">
        <ele>1138.844</ele>
        <time>2018-12-28T00:38:20Z</time>
      </trkpt>
      <trkpt lat="36.534040" lon="-118.773070">
        <ele>1137.558</ele>
        <time>2018-12-28T00:38:40Z</time>
      </trkpt>
      <trkpt lat="36.534020" lon="-118.772980">
        <ele>1136.761</ele>
        <time>2018-12-28T00:39:00Z</time>
      </trkpt>
      <trkpt lat="36.534020" lon="-118.772920">
        <ele>1136.962</ele>
        <time>2018-12-28T00:39:20Z</time>
      </trkpt>
      <trkpt lat="36.534020" lon="-118.772880">
        <ele>1136.845</ele>
        <time>2018-12-28T00:39:40Z</time>
      </trkpt>
      <trkpt lat="36.534030" lon="-118.772830">
        <ele>1137.155</ele>
        <time>2018-12-28T00:40:00Z</time>
      </trkpt>
      <trkpt lat="36.534050" lon="-118.772760">
        <ele>1137.907</ele>
        <time>2018-12-28T00:40:20Z</time>
      </trkpt>
      <trkpt lat="36.534100" lon="-118.772660">
        <ele>1140.017</ele>
        <time>2018-12-28T00:40:40Z</time>
      </trkpt>
      <trkpt lat="36.534150" lon="-118.772580">
        <ele>1140.408</ele>
        <time>2018-12-28T00:41:00Z</time>
      </trkpt>
      <trkpt lat="36.534180" lon="-118.772520">
        <ele>1139.938</ele>
        <time>2018-12-28T00:41:20Z</time>
      </trkpt>
      <trkpt lat="36.534190" lon="-118.772500">
        <ele>1139.726</ele>
        <time>2018-12-28T00:41:40Z</time>
      </trkpt>
      <trkpt lat="36.534210" lon="-118.772460">
        <ele>1139.361</ele>
        <time>2018-12-28T00:42:00Z</time>
      </trkpt>
      <trkpt lat="36.534230" lon="-118.772400">
        <ele>1138.321</ele>
        <time>2018-12-28T00:42:20Z</time>
      </trkpt>
      <trkpt lat="36.534250" lon="-118.772340">
        <ele>1137.315</ele>
        <time>2018-12-28T00:42:40Z</time>
      </trkpt>
      <trkpt lat="36.534260" lon="-118.772270">
        <ele>1135.558</ele>
        <time>2018-12-28T00:43:00Z</time>
      </trkpt>
      <trkpt lat="36.534290" lon="-118.772090">
        <ele>1131.369</ele>
        <time>2018-12-28T00:43:20Z</time>
      </trkpt>
      <trkpt lat="36.534320" lon="-118.771930">
        <ele>1132.652</ele>
        <time>2018-12-28T00:43:40Z</time>
      </trkpt>
      <trkpt lat="36.534340" lon="-118.771750">
        <ele>1133.732</ele>
        <time>2018-12-28T00:44:00Z</time>
      </trkpt>
      <trkpt lat="36.534340" lon="-118.771660">
        <ele>1133.492</ele>
        <time>2018-12-28T00:44:20Z</time>
      </trkpt>
      <trkpt lat="36.534340" lon="-118.771610">
        <ele>1133.211</ele>
        <time>2018-12-28T00:44:40Z</time>
      </trkpt>
      <trkpt lat="36.534340" lon="-118.771590">
        <ele>1133.108</ele>
        <time>2018-12-28T00:45:00Z</time>
      </trkpt>
      <trkpt lat="36.534340" lon="-118.771560">
        <ele>1133.146</ele>
        <time>2018-12-28T00:45:20Z</time>
      </trkpt>
      <trkpt lat="36.534330" lon="-118.771520">
        <ele>1132.364</ele>
        <time>2018-12-28T00:45:40Z</time>
      </trkpt>
      <trkpt lat="36.534320" lon="-118.771480">
        <ele>1131.819</ele>
        <time>2018-12-28T00:46:00Z</time>
      </trkpt>
      <trkpt lat="36.534310" lon="-118.771450">
        <ele>1131.339</ele>
        <time>2018-12-28T00:46:20Z</time>
      </trkpt>
      <trkpt lat="36.534280" lon="-118.771420">
        <ele>1130.493</ele>
        <time>2018-12-28T00:46:40Z</time>
      </trkpt>
      <trkpt lat="36.534250" lon="-118.771400">
        <ele>1129.826</ele>
        <time>2018-12-28T00:47:00Z</time>
      </trkpt>
      <trkpt lat="36.534220" lon="-118.771380">
        <ele>1129.237</ele>
        <time>2018-12-28T00:47:20Z</time>
      </trkpt>
      <trkpt lat="36.534190" lon="-118.771380">
        <ele>1128.580</ele>
        <time>2018-12-28T00:47:40Z</time>
      </trkpt>
      <trkpt lat="36.534170" lon="-118.771380">
        <ele>1128.064</ele>
        <time>2018-12-28T00:48:00Z</time>
      </trkpt>
      <trkpt lat="36.534110" lon="-118.771380">
        <ele>1126.506</ele>
        <time>2018-12-28T00:48:20Z</time>
      </trkpt>
      <trkpt lat="36.534050" lon="-118.771390">
        <ele>1124.716</ele>
        <time>2018-12-28T00:48:40Z</time>
      </trkpt>
      <trkpt lat="36.533970" lon="-118.771400">
        <ele>1122.708</ele>
        <time>2018-12-28T00:49:00Z</time>
      </trkpt>
      <trkpt lat="36.533960" lon="-118.771390">
        <ele>1122.759</ele>
        <time>2018-12-28T00:49:20Z</time>
      </trkpt>
      <trkpt lat="36.533890" lon="-118.771380">
        <ele>1121.617</ele>
        <time>2018-12-28T00:49:40Z</time>
      </trkpt>
      <trkpt lat="36.533840" lon="-118.771370">
        <ele>1120.862</ele>
        <time>2018-12-28T00:50:00Z</time>
      </trkpt>
      <trkpt lat="36.533810" lon="-118.771360">
        <ele>1120.542</ele>
        <time>2018-12-28T00:50:20Z</time>
      </trkpt>
      <trkpt lat="36.533770" lon="-118.771340">
        <ele>1120.326</ele>
        <time>2018-12-28T00:50:40Z</time>
      </trkpt>
      <trkpt lat="36.533720" lon="-118.771310">
        <ele>1120.319</ele>
        <time>2018-12-28T00:51:00Z</time>
      </trkpt>
      <trkpt lat="36.533650" lon="-118.771260">
        <ele>1120.220</ele>
        <time>2018-12-28T00:51:20Z</time>
      </trkpt>
      <trkpt lat="36.533600" lon="-118.771210">
        <ele>1120.033</ele>
        <time>2018-12-28T00:51:40Z</time>
      </trkpt>
      <trkpt lat="36.533560" lon="-118.771160">
        <ele>1119.913</ele>
        <time>2018-12-28T00:52:00Z</time>
      </trkpt>
      <trkpt lat="36.533480" lon="-118.771050">
        <ele>1119.343</ele>
        <time>2018-12-28T00:52:20Z</time>
      </trkpt>
      <trkpt lat="36.533420" lon="-118.770970">
        <ele>1119.207</ele>
        <time>2018-12-28T00:52:40Z</time>
      </trkpt>
      <trkpt lat="36.533390" lon="-118.770910">
        <ele>1119.708</ele>
        <time>2018-12-28T00:53:00Z</time>
      </trkpt>
      <trkpt lat="36.533360" lon="-118.770870">
        <ele>1119.954</ele>
        <time>2018-12-28T00:53:20Z</time>
      </trkpt>
      <trkpt lat="36.533340" lon="-118.770850">
        <ele>1120.012</ele>
        <time>2018-12-28T00:53:40Z</time>
      </trkpt>
      <trkpt lat="36.533320" lon="-118.770830">
        <ele>1120.247</ele>
        <time>2018-12-28T00:54:00Z</time>
      </trkpt>
      <trkpt lat="36.533300" lon="-118.770810">
        <ele>1120.357</ele>
        <time>2018-12-28T00:54:20Z</time>
      </trkpt>
      <trkpt lat="36.533280" lon="-118.770800">
        <ele>1120.311</ele>
        <time>2018-12-28T00:54:40Z</time>
      </trkpt>
      <trkpt lat="36.533260" lon="-118.770800">
        <ele>1120.154</ele>
        <time>2018-12-28T00:55:00Z</time>
      </trkpt>
      <trkpt lat="36.533250" lon="-118.770800">
        <ele>1120.095</ele>
        <time>2018-12-28T00:55:20Z</time>
      </trkpt>
      <trkpt lat="36.533230" lon="-118.770800">
        <ele>1119.768</ele>
        <time>2018-12-28T00:55:40Z</time>
      </trkpt>
      <trkpt lat="36.533210" lon="-118.770810">
        <ele>1119.238</ele>
        <time>2018-12-28T00:56:00Z</time>
      </trkpt>
      <trkpt lat="36.533200" lon="-118.770820">
        <ele>1118.870</ele>
        <time>2018-12-28T00:56:20Z</time>
      </trkpt>
      <trkpt lat="36.533180" lon="-118.770830">
        <ele>1118.817</ele>
        <time>2018-12-28T00:56:40Z</time>
      </trkpt>
      <trkpt lat="36.533170" lon="-118.770850">
        <ele>1118.408</ele>
        <time>2018-12-28T00:57:00Z</time>
      </trkpt>
      <trkpt lat="36.533160" lon="-118.770860">
        <ele>1118.436</ele>
        <time>2018-12-28T00:57:20Z</time>
      </trkpt>
      <trkpt lat="36.533150" lon="-118.770880">
        <ele>1118.034</ele>
        <time>2018-12-28T00:57:40Z</time>
      </trkpt>
      <trkpt lat="36.533140" lon="-118.770900">
        <ele>1117.699</ele>
        <time>2018-12-28T00:58:00Z</time>
      </trkpt>
      <trkpt lat="36.533140" lon="-118.770930">
        <ele>1116.779</ele>
        <time>2018-12-28T00:58:20Z</time>
      </trkpt>
      <trkpt lat="36.533140" lon="-118.770960">
        <ele>1115.813</ele>
        <time>2018-12-28T00:58:40Z</time>
      </trkpt>
      <trkpt lat="36.533140" lon="-118.771000">
        <ele>1115.016</ele>
        <time>2018-12-28T00:59:00Z</time>
      </trkpt>
      <trkpt lat="36.533150" lon="-118.771030">
        <ele>1114.477</ele>
        <time>2018-12-28T00:59:20Z</time>
      </trkpt>
      <trkpt lat="36.533160" lon="-118.771060">
        <ele>1113.870</ele>
        <time>2018-12-28T00:59:40Z</time>
      </trkpt>
      <trkpt lat="36.533180" lon="-118.771090">
        <ele>1113.424</ele>
        <time>2018-12-28T01:00:00Z</time>
      </trkpt>
      <trkpt lat="36.533200" lon="-118.771110">
        <ele>1113.304</ele>
        <time>2018-12-28T01:00:20Z</time>
      </trkpt>
      <trkpt lat="36.533240" lon="-118.771140">
        <ele>1113.714</ele>
        <time>2018-12-28T01:00:40Z</time>
      </trkpt>
      <trkpt lat="36.533280" lon="-118.771170">
        <ele>1114.008</ele>
        <time>2018-12-28T01:01:00Z</time>
      </trkpt>
      <trkpt lat="36.533310" lon="-118.771190">
        <ele>1114.315</ele>
        <time>2018-12-28T01:01:20Z</time>
      </trkpt>
      <trkpt lat="36.533340" lon="-118.771210">
        <ele>1114.613</ele>
        <time>2018-12-28T01:01:40Z</time>
      </trkpt>
      <trkpt lat="36.533360" lon="-118.771230">
        <ele>1114.778</ele>
        <time>2018-12-28T01:02:00Z</time>
      </trkpt>
      <trkpt lat="36.533410" lon="-118.771270">
        <ele>1114.948</ele>
        <time>2018-12-28T01:02:20Z</time>
      </trkpt>
      <trkpt lat="36.533450" lon="-118.771330">
        <ele>1114.692</ele>
        <time>2018-12-28T01:02:40Z</time>
      </trkpt>
      <trkpt lat="36.533480" lon="-118.771380">
        <ele>1114.575</ele>
        <time>2018-12-28T01:03:00Z</time>
      </trkpt>
      <trkpt lat="36.533520" lon="-118.771440">
        <ele>1114.116</ele>
        <time>2018-12-28T01:03:20Z</time>
      </trkpt>
      <trkpt lat="36.533560" lon="-118.771510">
        <ele>1113.169</ele>
        <time>2018-12-28T01:03:40Z</time>
      </trkpt>
      <trkpt lat="36.533590" lon="-118.771560">
        <ele>1111.175</ele>
        <time>2018-12-28T01:04:00Z</time>
      </trkpt>
      <trkpt lat="36.533630" lon="-118.771600">
        <ele>1109.328</ele>
        <time>2018-12-28T01:04:20Z</time>
      </trkpt>
      <trkpt lat="36.533660" lon="-118.771630">
        <ele>1108.320</ele>
        <time>2018-12-28T01:04:40Z</time>
      </trkpt>
      <trkpt lat="36.533690" lon="-118.771660">
        <ele>1107.408</ele>
        <time>2018-12-28T01:05:00Z</time>
      </trkpt>
      <trkpt lat="36.533740" lon="-118.771700">
        <ele>1106.820</ele>
        <time>2018-12-28T01:05:20Z</time>
      </trkpt>
      <trkpt lat="36.533780" lon="-118.771730">
        <ele>1106.928</ele>
        <time>2018-12-28T01:05:40Z</time>
      </trkpt>
      <trkpt lat="36.533840" lon="-118.771770">
        <ele>1107.853</ele>
        <time>2018-12-28T01:06:00Z</time>
      </trkpt>
      <trkpt lat="36.533850" lon="-118.771800">
        <ele>1107.133</ele>
        <time>2018-12-28T01:06:20Z</time>
      </trkpt>
      <trkpt lat="36.533880" lon="-118.771810">
        <ele>1108.227</ele>
        <time>2018-12-28T01:06:40Z</time>
      </trkpt>
      <trkpt lat="36.533900" lon="-118.771840">
        <ele>1109.220</ele>
        <time>2018-12-28T01:07:00Z</time>
      </trkpt>
      <trkpt lat="36.533920" lon="-118.771870">
        <ele>1110.231</ele>
        <time>2018-12-28T01:07:20Z</time>
      </trkpt>
      <trkpt lat="36.533930" lon="-118.771900">
        <ele>1110.874</ele>
        <time>2018-12-28T01:07:40Z</time>
      </trkpt>
      <trkpt lat="36.533930" lon="-118.771920">
        <ele>1110.975</ele>
        <time>2018-12-28T01:08:00Z</time>
      </trkpt>
      <trkpt lat="36.533940" lon="-118.771970">
        <ele>1111.728</ele>
        <time>2018-12-28T01:08:20Z</time>
      </trkpt>
      <trkpt lat="36.533940" lon="-118.772020">
        <ele>1112.020</ele>
        <time>2018-12-28T01:08:40Z</time>
      </trkpt>
      <trkpt lat="36.533940" lon="-118.772060">
        <ele>1112.208</ele>
        <time>2018-12-28T01:09:00Z</time>
      </trkpt>
      <trkpt lat="36.533930" lon="-118.772100">
        <ele>1112.330</ele>
        <time>2018-12-28T01:09:20Z</time>
      </trkpt>
      <trkpt lat="36.533920" lon="-118.772140">
        <ele>1113.048</ele>
        <time>2018-12-28T01:09:40Z</time>
      </trkpt>
      <trkpt lat="36.533900" lon="-118.772180">
        <ele>1113.033</ele>
        <time>2018-12-28T01:10:00Z</time>
      </trkpt>
      <trkpt lat="36.533870" lon="-118.772260">
        <ele>1113.463</ele>
        <time>2018-12-28T01:10:20Z</time>
      </trkpt>
      <trkpt lat="36.533850" lon="-118.772300">
        <ele>1113.117</ele>
        <time>2018-12-28T01:10:40Z</time>
      </trkpt>
      <trkpt lat="36.533820" lon="-118.772340">
        <ele>1111.950</ele>
        <time>2018-12-28T01:11:00Z</time>
      </trkpt>
      <trkpt lat="36.533790" lon="-118.772380">
        <ele>1110.771</ele>
        <time>2018-12-28T01:11:20Z</time>
      </trkpt>
      <trkpt lat="36.533770" lon="-118.772400">
        <ele>1109.934</ele>
        <time>2018-12-28T01:11:40Z</time>
      </trkpt>
      <trkpt lat="36.533750" lon="-118.772430">
        <ele>1109.298</ele>
        <time>2018-12-28T01:12:00Z</time>
      </trkpt>
      <trkpt lat="36.533680" lon="-118.772500">
        <ele>1108.815</ele>
        <time>2018-12-28T01:12:20Z</time>
      </trkpt>
      <trkpt lat="36.533620" lon="-118.772560">
        <ele>1107.826</ele>
        <time>2018-12-28T01:12:40Z</time>
      </trkpt>
      <trkpt lat="36.533560" lon="-118.772630">
        <ele>1106.508</ele>
        <time>2018-12-28T01:13:00Z</time>
      </trkpt>
      <trkpt lat="36.533530" lon="-118.772670">
        <ele>1105.462</ele>
        <time>2018-12-28T01:13:20Z</time>
      </trkpt>
      <trkpt lat="36.533500" lon="-118.772720">
        <ele>1104.030</ele>
        <time>2018-12-28T01:13:40Z</time>
      </trkpt>
      <trkpt lat="36.533480" lon="-118.772770">
        <ele>1103.035</ele>
        <time>2018-12-28T01:14:00Z</time>
      </trkpt>
      <trkpt lat="36.533460" lon="-118.772810">
        <ele>1101.935</ele>
        <time>2018-12-28T01:14:20Z</time>
      </trkpt>
      <trkpt lat="36.533450" lon="-118.772860">
        <ele>1101.359</ele>
        <time>2018-12-28T01:14:40Z</time>
      </trkpt>
      <trkpt lat="36.533440" lon="-118.772910">
        <ele>1100.682</ele>
        <time>2018-12-28T01:15:00Z</time>
      </trkpt>
      <trkpt lat="36.533440" lon="-118.772970">
        <ele>1099.733</ele>
        <time>2018-12-28T01:15:20Z</time>
      </trkpt>
      <trkpt lat="36.533440" lon="-118.773020">
        <ele>1098.936</ele>
        <time>2018-12-28T01:15:40Z</time>
      </trkpt>
      <trkpt lat="36.533440" lon="-118.773110">
        <ele>1097.313</ele>
        <time>2018-12-28T01:16:00Z</time>
      </trkpt>
      <trkpt lat="36.533430" lon="-118.773200">
        <ele>1095.643</ele>
        <time>2018-12-28T01:16:20Z</time>
      </trkpt>
      <trkpt lat="36.533420" lon="-118.773270">
        <ele>1095.807</ele>
        <time>2018-12-28T01:16:40Z</time>
      </trkpt>
      <trkpt lat="36.533410" lon="-118.773330">
        <ele>1096.008</ele>
        <time>2018-12-28T01:17:00Z</time>
      </trkpt>
      <trkpt lat="36.533390" lon="-118.773390">
        <ele>1095.854</ele>
        <time>2018-12-28T01:17:20Z</time>
      </trkpt>
      <trkpt lat="36.533370" lon="-118.773480">
        <ele>1095.952</ele>
        <time>2018-12-28T01:17:40Z</time>
      </trkpt>
      <trkpt lat="36.533350" lon="-118.773560">
        <ele>1095.587</ele>
        <time>2018-12-28T01:18:00Z</time>
      </trkpt>
      <trkpt lat="36.533340" lon="-118.773630">
        <ele>1095.467</ele>
        <time>2018-12-28T01:18:20Z</time>
      </trkpt>
      <trkpt lat="36.533330" lon="-118.773730">
        <ele>1095.371</ele>
        <time>2018-12-28T01:18:40Z</time>
      </trkpt>
      <trkpt lat="36.533320" lon="-118.773790">
        <ele>1094.974</ele>
        <time>2018-12-28T01:19:00Z</time>
      </trkpt>
      <trkpt lat="36.533320" lon="-118.773840">
        <ele>1094.935</ele>
        <time>2018-12-28T01:19:20Z</time>
      </trkpt>
      <trkpt lat="36.533320" lon="-118.773920">
        <ele>1094.958</ele>
        <time>2018-12-28T01:19:40Z</time>
      </trkpt>
      <trkpt lat="36.533330" lon="-118.773980">
        <ele>1095.396</ele>
        <time>2018-12-28T01:20:00Z</time>
      </trkpt>
      <trkpt lat="36.533330" lon="-118.774040">
        <ele>1095.131</ele>
        <time>2018-12-28T01:20:20Z</time>
      </trkpt>
      <trkpt lat="36.533340" lon="-118.774100">
        <ele>1094.624</ele>
        <time>2018-12-28T01:20:40Z</time>
      </trkpt>
      <trkpt lat="36.533350" lon="-118.774150">
        <ele>1094.208</ele>
        <time>2018-12-28T01:21:00Z</time>
      </trkpt>
      <trkpt lat="36.533370" lon="-118.774210">
        <ele>1094.012</ele>
        <time>2018-12-28T01:21:20Z</time>
      </trkpt>
      <trkpt lat="36.533380" lon="-118.774260">
        <ele>1093.770</ele>
        <time>2018-12-28T01:21:40Z</time>
      </trkpt>
      <trkpt lat="36.533410" lon="-118.774350">
        <ele>1092.815</ele>
        <time>2018-12-28T01:22:00Z</time>
      </trkpt>
      <trkpt lat="36.533440" lon="-118.774440">
        <ele>1091.745</ele>
        <time>2018-12-28T01:22:20Z</time>
      </trkpt>
      <trkpt lat="36.533470" lon="-118.774530">
        <ele>1090.989</ele>
        <time>2018-12-28T01:22:40Z</time>
      </trkpt>
      <trkpt lat="36.533490" lon="-118.774570">
        <ele>1090.522</ele>
        <time>2018-12-28T01:23:00Z</time>
      </trkpt>
      <trkpt lat="36.533520" lon="-118.774620">
        <ele>1089.733</ele>
        <time>2018-12-28T01:23:20Z</time>
      </trkpt>
      <trkpt lat="36.533540" lon="-118.774650">
        <ele>1089.216</ele>
        <time>2018-12-28T01:23:40Z</time>
      </trkpt>
      <trkpt lat="36.533570" lon="-118.774680">
        <ele>1089.029</ele>
        <time>2018-12-28T01:24:00Z</time>
      </trkpt>
      <trkpt lat="36.533600" lon="-118.774710">
        <ele>1088.900</ele>
        <time>2018-12-28T01:24:20Z</time>
      </trkpt>
      <trkpt lat="36.533640" lon="-118.774740">
        <ele>1089.020</ele>
        <time>2018-12-28T01:24:40Z</time>
      </trkpt>
      <trkpt lat="36.533670" lon="-118.774760">
        <ele>1089.108</ele>
        <time>2018-12-28T01:25:00Z</time>
      </trkpt>
      <trkpt lat="36.533750" lon="-118.774800">
        <ele>1090.135</ele>
        <time>2018-12-28T01:25:20Z</time>
      </trkpt>
      <trkpt lat="36.533800" lon="-118.774830">
        <ele>1090.823</ele>
        <time>2018-12-28T01:25:40Z</time>
      </trkpt>
      <trkpt lat="36.533830" lon="-118.774860">
        <ele>1090.848</ele>
        <time>2018-12-28T01:26:00Z</time>
      </trkpt>
      <trkpt lat="36.533850" lon="-118.774880">
        <ele>1090.978</ele>
        <time>2018-12-28T01:26:20Z</time>
      </trkpt>
      <trkpt lat="36.533870" lon="-118.774910">
        <ele>1090.752</ele>
        <time>2018-12-28T01:26:40Z</time>
      </trkpt>
      <trkpt lat="36.533880" lon="-118.774930">
        <ele>1090.555</ele>
        <time>2018-12-28T01:27:00Z</time>
      </trkpt>
      <trkpt lat="36.533890" lon="-118.774950">
        <ele>1090.326</ele>
        <time>2018-12-28T01:27:20Z</time>
      </trkpt>
      <trkpt lat="36.533900" lon="-118.774970">
        <ele>1090.149</ele>
        <time>2018-12-28T01:27:40Z</time>
      </trkpt>
      <trkpt lat="36.533910" lon="-118.775000">
        <ele>1089.714</ele>
        <time>2018-12-28T01:28:00Z</time>
      </trkpt>
      <trkpt lat="36.533930" lon="-118.775040">
        <ele>1089.554</ele>
        <time>2018-12-28T01:28:20Z</time>
      </trkpt>
      <trkpt lat="36.533940" lon="-118.775080">
        <ele>1088.909</ele>
        <time>2018-12-28T01:28:40Z</time>
      </trkpt>
      <trkpt lat="36.533960" lon="-118.775150">
        <ele>1088.108</ele>
        <time>2018-12-28T01:29:00Z</time>
      </trkpt>
      <trkpt lat="36.533980" lon="-118.775220">
        <ele>1087.494</ele>
        <time>2018-12-28T01:29:20Z</time>
      </trkpt>
      <trkpt lat="36.534000" lon="-118.775300">
        <ele>1086.692</ele>
        <time>2018-12-28T01:29:40Z</time>
      </trkpt>
      <trkpt lat="36.534010" lon="-118.775330">
        <ele>1086.567</ele>
        <time>2018-12-28T01:30:00Z</time>
      </trkpt>
      <trkpt lat="36.534040" lon="-118.775390">
        <ele>1086.357</ele>
        <time>2018-12-28T01:30:20Z</time>
      </trkpt>
      <trkpt lat="36.534060" lon="-118.775420">
        <ele>1085.861</ele>
        <time>2018-12-28T01:30:40Z</time>
      </trkpt>
      <trkpt lat="36.534080" lon="-118.775450">
        <ele>1085.174</ele>
        <time>2018-12-28T01:31:00Z</time>
      </trkpt>
      <trkpt lat="36.534160" lon="-118.775550">
        <ele>1083.465</ele>
        <time>2018-12-28T01:31:20Z</time>
      </trkpt>
      <trkpt lat="36.534190" lon="-118.775590">
        <ele>1083.028</ele>
        <time>2018-12-28T01:31:40Z</time>
      </trkpt>
      <trkpt lat="36.534210" lon="-118.775610">
        <ele>1083.082</ele>
        <time>2018-12-28T01:32:00Z</time>
      </trkpt>
      <trkpt lat="36.534220" lon="-118.775640">
        <ele>1082.543</ele>
        <time>2018-12-28T01:32:20Z</time>
      </trkpt>
      <trkpt lat="36.534230" lon="-118.775660">
        <ele>1082.417</ele>
        <time>2018-12-28T01:32:40Z</time>
      </trkpt>
      <trkpt lat="36.534240" lon="-118.775700">
        <ele>1081.908</ele>
        <time>2018-12-28T01:33:00Z</time>
      </trkpt>
      <trkpt lat="36.534250" lon="-118.775730">
        <ele>1082.661</ele>
        <time>2018-12-28T01:33:20Z</time>
      </trkpt>
      <trkpt lat="36.534260" lon="-118.775760">
        <ele>1083.319</ele>
        <time>2018-12-28T01:33:40Z</time>
      </trkpt>
      <trkpt lat="36.534260" lon="-118.775800">
        <ele>1083.734</ele>
        <time>2018-12-28T01:34:00Z</time>
      </trkpt>
      <trkpt lat="36.534250" lon="-118.775830">
        <ele>1083.824</ele>
        <time>2018-12-28T01:34:20Z</time>
      </trkpt>
      <trkpt lat="36.534240" lon="-118.775850">
        <ele>1083.728</ele>
        <time>2018-12-28T01:34:40Z</time>
      </trkpt>
      <trkpt lat="36.534240" lon="-118.775880">
        <ele>1084.151</ele>
        <time>2018-12-28T01:35:00Z</time>
      </trkpt>
      <trkpt lat="36.534230" lon="-118.775900">
        <ele>1084.182</ele>
        <time>2018-12-28T01:35:20Z</time>
      </trkpt>
      <trkpt lat="36.534210" lon="-118.775930">
        <ele>1084.185</ele>
        <time>2018-12-28T01:35:40Z</time>
      </trkpt>
      <trkpt lat="36.534190" lon="-118.775950">
        <ele>1083.929</ele>
        <time>2018-12-28T01:36:00Z</time>
      </trkpt>
      <trkpt lat="36.534170" lon="-118.775970">
        <ele>1083.800</ele>
        <time>2018-12-28T01:36:20Z</time>
      </trkpt>
      <trkpt lat="36.534130" lon="-118.776000">
        <ele>1083.420</ele>
        <time>2018-12-28T01:36:40Z</time>
      </trkpt>
      <trkpt lat="36.534070" lon="-118.776060">
        <ele>1082.908</ele>
        <time>2018-12-28T01:37:00Z</time>
      </trkpt>
      <trkpt lat="36.534000" lon="-118.776120">
        <ele>1082.355</ele>
        <time>2018-12-28T01:37:20Z</time>
      </trkpt>
      <trkpt lat="36.533980" lon="-118.776150">
        <ele>1082.253</ele>
        <time>2018-12-28T01:37:40Z</time>
      </trkpt>
      <trkpt lat="36.533960" lon="-118.776170">
        <ele>1081.928</ele>
        <time>2018-12-28T01:38:00Z</time>
      </trkpt>
      <trkpt lat="36.533940" lon="-118.776210">
        <ele>1081.858</ele>
        <time>2018-12-28T01:38:20Z</time>
      </trkpt>
      <trkpt lat="36.533920" lon="-118.776250">
        <ele>1081.632</ele>
        <time>2018-12-28T01:38:40Z</time>
      </trkpt>
      <trkpt lat="36.533910" lon="-118.776280">
        <ele>1081.345</ele>
        <time>2018-12-28T01:39:00Z</time>
      </trkpt>
      <trkpt lat="36.533900" lon="-118.776300">
        <ele>1081.096</ele>
        <time>2018-12-28T01:39:20Z</time>
      </trkpt>
      <trkpt lat="36.533900" lon="-118.776330">
        <ele>1080.999</ele>
        <time>2018-12-28T01:39:40Z</time>
      </trkpt>
      <trkpt lat="36.533890" lon="-118.776370">
        <ele>1080.564</ele>
        <time>2018-12-28T01:40:00Z</time>
      </trkpt>
      <trkpt lat="36.533890" lon="-118.776400">
        <ele>1080.406</ele>
        <time>2018-12-28T01:40:20Z</time>
      </trkpt>
      <trkpt lat="36.533890" lon="-118.776440">
        <ele>1080.316</ele>
        <time>2018-12-28T01:40:40Z</time>
      </trkpt>
      <trkpt lat="36.533890" lon="-118.776480">
        <ele>1080.208</ele>
        <time>2018-12-28T01:41:00Z</time>
      </trkpt>
      <trkpt lat="36.533900" lon="-118.776560">
        <ele>1079.989</ele>
        <time>2018-12-28T01:41:20Z</time>
      </trkpt>
      <trkpt lat="36.533900" lon="-118.776630">
        <ele>1078.977</ele>
        <time>2018-12-28T01:41:40Z</time>
      </trkpt>
      <trkpt lat="36.533920" lon="-118.776720">
        <ele>1078.162</ele>
        <time>2018-12-28T01:42:00Z</time>
      </trkpt>
      <trkpt lat="36.533960" lon="-118.776880">
        <ele>1075.022</ele>
        <time>2018-12-28T01:42:20Z</time>
      </trkpt>
      <trkpt lat="36.533980" lon="-118.776970">
        <ele>1072.186</ele>
        <time>2018-12-28T01:42:40Z</time>
      </trkpt>
      <trkpt lat="36.534000" lon="-118.777010">
        <ele>1071.119</ele>
        <time>2018-12-28T01:43:00Z</time>
      </trkpt>
      <trkpt lat="36.534030" lon="-118.777060">
        <ele>1070.110</ele>
        <time>2018-12-28T01:43:20Z</time>
      </trkpt>
      <trkpt lat="36.534060" lon="-118.777110">
        <ele>1068.713</ele>
        <time>2018-12-28T01:43:40Z</time>
      </trkpt>
      <trkpt lat="36.534080" lon="-118.777130">
        <ele>1068.382</ele>
        <time>2018-12-28T01:44:00Z</time>
      </trkpt>
      <trkpt lat="36.534100" lon="-118.777150">
        <ele>1067.943</ele>
        <time>2018-12-28T01:44:20Z</time>
      </trkpt>
      <trkpt lat="36.534160" lon="-118.777200">
        <ele>1067.017</ele>
        <time>2018-12-28T01:44:40Z</time>
      </trkpt>
      <trkpt lat="36.534250" lon="-118.777250">
        <ele>1066.708</ele>
        <time>2018-12-28T01:45:00Z</time>
      </trkpt>
      <trkpt lat="36.534310" lon="-118.777280">
        <ele>1066.681</ele>
        <time>2018-12-28T01:45:20Z</time>
      </trkpt>
      <trkpt lat="36.534380" lon="-118.777320">
        <ele>1066.719</ele>
        <time>2018-12-28T01:45:40Z</time>
      </trkpt>
      <trkpt lat="36.534430" lon="-118.777350">
        <ele>1066.754</ele>
        <time>2018-12-28T01:46:00Z</time>
      </trkpt>
      <trkpt lat="36.534600" lon="-118.777480">
        <ele>1067.814</ele>
        <time>2018-12-28T01:46:20Z</time>
      </trkpt>
      <trkpt lat="36.534680" lon="-118.777530">
        <ele>1067.288</ele>
        <time>2018-12-28T01:46:40Z</time>
      </trkpt>
      <trkpt lat="36.534720" lon="-118.777550">
        <ele>1067.041</ele>
        <time>2018-12-28T01:47:00Z</time>
      </trkpt>
      <trkpt lat="36.534760" lon="-118.777580">
        <ele>1066.592</ele>
        <time>2018-12-28T01:47:20Z</time>
      </trkpt>
      <trkpt lat="36.534840" lon="-118.777600">
        <ele>1066.465</ele>
        <time>2018-12-28T01:47:40Z</time>
      </trkpt>
      <trkpt lat="36.534970" lon="-118.777630">
        <ele>1066.422</ele>
        <time>2018-12-28T01:48:00Z</time>
      </trkpt>
      <trkpt lat="36.535060" lon="-118.777640">
        <ele>1066.762</ele>
        <time>2018-12-28T01:48:20Z</time>
      </trkpt>
      <trkpt lat="36.535080" lon="-118.777650">
        <ele>1066.808</ele>
        <time>2018-12-28T01:48:40Z</time>
      </trkpt>
      <trkpt lat="36.535140" lon="-118.777660">
        <ele>1067.208</ele>
        <time>2018-12-28T01:49:00Z</time>
      </trkpt>
      <trkpt lat="36.535170" lon="-118.777670">
        <ele>1067.785</ele>
        <time>2018-12-28T01:49:20Z</time>
      </trkpt>
      <trkpt lat="36.535190" lon="-118.777670">
        <ele>1068.073</ele>
        <time>2018-12-28T01:49:40Z</time>
      </trkpt>
      <trkpt lat="36.535210" lon="-118.777680">
        <ele>1068.388</ele>
        <time>2018-12-28T01:50:00Z</time>
      </trkpt>
      <trkpt lat="36.535230" lon="-118.777700">
        <ele>1068.748</ele>
        <time>2018-12-28T01:50:20Z</time>
      </trkpt>
      <trkpt lat="36.535250" lon="-118.777710">
        <ele>1069.022</ele>
        <time>2018-12-28T01:50:40Z</time>
      </trkpt>
      <trkpt lat="36.535260" lon="-118.777720">
        <ele>1069.275</ele>
        <time>2018-12-28T01:51:00Z</time>
      </trkpt>
      <trkpt lat="36.535270" lon="-118.777730">
        <ele>1069.466</ele>
        <time>2018-12-28T01:51:20Z</time>
      </trkpt>
      <trkpt lat="36.535280" lon="-118.777740">
        <ele>1069.569</ele>
        <time>2018-12-28T01:51:40Z</time>
      </trkpt>
      <trkpt lat="36.535290" lon="-118.777770">
        <ele>1069.768</ele>
        <time>2018-12-28T01:52:00Z</time>
      </trkpt>
      <trkpt lat="36.535290" lon="-118.777790">
        <ele>1069.842</ele>
        <time>2018-12-28T01:52:20Z</time>
      </trkpt>
      <trkpt lat="36.535300" lon="-118.777810">
        <ele>1070.026</ele>
        <time>2018-12-28T01:52:40Z</time>
      </trkpt>
      <trkpt lat="36.535300" lon="-118.777840">
        <ele>1070.008</ele>
        <time>2018-12-28T01:53:00Z</time>
      </trkpt>
      <trkpt lat="36.535300" lon="-118.777870">
        <ele>1070.039</ele>
        <time>2018-12-28T01:53:20Z</time>
      </trkpt>
      <trkpt lat="36.535290" lon="-118.777900">
        <ele>1069.927</ele>
        <time>2018-12-28T01:53:40Z</time>
      </trkpt>
      <trkpt lat="36.535290" lon="-118.777920">
        <ele>1070.092</ele>
        <time>2018-12-28T01:54:00Z</time>
      </trkpt>
      <trkpt lat="36.535290" lon="-118.777940">
        <ele>1070.442</ele>
        <time>2018-12-28T01:54:20Z</time>
      </trkpt>
      <trkpt lat="36.535280" lon="-118.777950">
        <ele>1070.466</ele>
        <time>2018-12-28T01:54:40Z</time>
      </trkpt>
      <trkpt lat="36.535270" lon="-118.777980">
        <ele>1070.989</ele>
        <time>2018-12-28T01:55:00Z</time>
      </trkpt>
      <trkpt lat="36.535260" lon="-118.777990">
        <ele>1070.910</ele>
        <time>2018-12-28T01:55:20Z</time>
      </trkpt>
      <trkpt lat="36.535250" lon="-118.778010">
        <ele>1071.253</ele>
        <time>2018-12-28T01:55:40Z</time>
      </trkpt>
      <trkpt lat="36.535240" lon="-118.778020">
        <ele>1071.212</ele>
        <time>2018-12-28T01:56:00Z</time>
      </trkpt>
      <trkpt lat="36.535230" lon="-118.778030">
        <ele>1071.232</ele>
        <time>2018-12-28T01:56:20Z</time>
      </trkpt>
      <trkpt lat="36.535210" lon="-118.778040">
        <ele>1071.105</ele>
        <time>2018-12-28T01:56:40Z</time>
      </trkpt>
      <trkpt lat="36.535190" lon="-118.778050">
        <ele>1070.908</ele>
        <time>2018-12-28T01:57:00Z</time>
      </trkpt>
      <trkpt lat="36.535180" lon="-118.778050">
        <ele>1070.714</ele>
        <time>2018-12-28T01:57:20Z</time>
      </trkpt>
      <trkpt lat="36.535160" lon="-118.778050">
        <ele>1070.462</ele>
        <time>2018-12-28T01:57:40Z</time>
      </trkpt>
      <trkpt lat="36.535140" lon="-118.778050">
        <ele>1070.017</ele>
        <time>2018-12-28T01:58:00Z</time>
      </trkpt>
      <trkpt lat="36.535120" lon="-118.778050">
        <ele>1069.757</ele>
        <time>2018-12-28T01:58:20Z</time>
      </trkpt>
      <trkpt lat="36.535100" lon="-118.778040">
        <ele>1069.361</ele>
        <time>2018-12-28T01:58:40Z</time>
      </trkpt>
      <trkpt lat="36.535080" lon="-118.778030">
        <ele>1068.824</ele>
        <time>2018-12-28T01:59:00Z</time>
      </trkpt>
      <trkpt lat="36.535060" lon="-118.778020">
        <ele>1068.335</ele>
        <time>2018-12-28T01:59:20Z</time>
      </trkpt>
      <trkpt lat="36.535040" lon="-118.778000">
        <ele>1067.618</ele>
        <time>2018-12-28T01:59:40Z</time>
      </trkpt>
      <trkpt lat="36.535010" lon="-118.777970">
        <ele>1066.536</ele>
        <time>2018-12-28T02:00:00Z</time>
      </trkpt>
      <trkpt lat="36.534990" lon="-118.777950">
        <ele>1065.717</ele>
        <time>2018-12-28T02:00:20Z</time>
      </trkpt>
      <trkpt lat="36.534960" lon="-118.777920">
        <ele>1064.618</ele>
        <time>2018-12-28T02:00:40Z</time>
      </trkpt>
      <trkpt lat="36.534930" lon="-118.777890">
        <ele>1064.208</ele>
        <time>2018-12-28T02:01:00Z</time>
      </trkpt>
      <trkpt lat="36.534910" lon="-118.777870">
        <ele>1064.186</ele>
        <time>2018-12-28T02:01:20Z</time>
      </trkpt>
      <trkpt lat="36.534890" lon="-118.777860">
        <ele>1063.974</ele>
        <time>2018-12-28T02:01:40Z</time>
      </trkpt>
      <trkpt lat="36.534870" lon="-118.777840">
        <ele>1063.879</ele>
        <time>2018-12-28T02:02:00Z</time>
      </trkpt>
      <trkpt lat="36.534850" lon="-118.777830">
        <ele>1063.669</ele>
        <time>2018-12-28T02:02:20Z</time>
      </trkpt>
      <trkpt lat="36.534790" lon="-118.777800">
        <ele>1063.113</ele>
        <time>2018-12-28T02:02:40Z</time>
      </trkpt>
      <trkpt lat="36.534730" lon="-118.777780">
        <ele>1062.556</ele>
        <time>2018-12-28T02:03:00Z</time>
      </trkpt>
      <trkpt lat="36.534660" lon="-118.777760">
        <ele>1062.057</ele>
        <time>2018-12-28T02:03:20Z</time>
      </trkpt>
      <trkpt lat="36.534590" lon="-118.777730">
        <ele>1061.920</ele>
        <time>2018-12-28T02:03:40Z</time>
      </trkpt>
      <trkpt lat="36.534520" lon="-118.777700">
        <ele>1060.796</ele>
        <time>2018-12-28T02:04:00Z</time>
      </trkpt>
      <trkpt lat="36.534420" lon="-118.777660">
        <ele>1058.131</ele>
        <time>2018-12-28T02:04:20Z</time>
      </trkpt>
      <trkpt lat="36.534350" lon="-118.777630">
        <ele>1056.124</ele>
        <time>2018-12-28T02:04:40Z</time>
      </trkpt>
      <trkpt lat="36.534110" lon="-118.777520">
        <ele>1052.808</ele>
        <time>2018-12-28T02:05:00Z</time>
      </trkpt>
      <trkpt lat="36.533920" lon="-118.777430">
        <ele>1052.042</ele>
        <time>2018-12-28T02:05:20Z</time>
      </trkpt>
      <trkpt lat="36.533790" lon="-118.777370">
        <ele>1051.690</ele>
        <time>2018-12-28T02:05:40Z</time>
      </trkpt>
      <trkpt lat="36.533710" lon="-118.777330">
        <ele>1050.395</ele>
        <time>2018-12-28T02:06:00Z</time>
      </trkpt>
      <trkpt lat="36.533610" lon="-118.777260">
        <ele>1048.875</ele>
        <time>2018-12-28T02:06:20Z</time>
      </trkpt>
      <trkpt lat="36.533560" lon="-118.777220">
        <ele>1048.779</ele>
        <time>2018-12-28T02:06:40Z</time>
      </trkpt>
      <trkpt lat="36.533520" lon="-118.777170">
        <ele>1049.932</ele>
        <time>2018-12-28T02:07:00Z</time>
      </trkpt>
      <trkpt lat="36.533470" lon="-118.777100">
        <ele>1052.223</ele>
        <time>2018-12-28T02:07:20Z</time>
      </trkpt>
      <trkpt lat="36.533430" lon="-118.777060">
        <ele>1051.776</ele>
        <time>2018-12-28T02:07:40Z</time>
      </trkpt>
      <trkpt lat="36.533350" lon="-118.776980">
        <ele>1049.826</ele>
        <time>2018-12-28T02:08:00Z</time>
      </trkpt>
      <trkpt lat="36.533180" lon="-118.776800">
        <ele>1047.747</ele>
        <time>2018-12-28T02:08:20Z</time>
      </trkpt>
      <trkpt lat="36.533130" lon="-118.776750">
        <ele>1045.911</ele>
        <time>2018-12-28T02:08:40Z</time>
      </trkpt>
      <trkpt lat="36.533090" lon="-118.776700">
        <ele>1044.908</ele>
        <time>2018-12-28T02:09:00Z</time>
      </trkpt>
      <trkpt lat="36.533060" lon="-118.776650">
        <ele>1044.675</ele>
        <time>2018-12-28T02:09:20Z</time>
      </trkpt>
      <trkpt lat="36.533030" lon="-118.776600">
        <ele>1044.573</ele>
        <time>2018-12-28T02:09:40Z</time>
      </trkpt>
      <trkpt lat="36.532980" lon="-118.776530">
        <ele>1044.478</ele>
        <time>2018-12-28T02:10:00Z</time>
      </trkpt>
      <trkpt lat="36.532930" lon="-118.776470">
        <ele>1044.378</ele>
        <time>2018-12-28T02:10:20Z</time>
      </trkpt>
      <trkpt lat="36.532810" lon="-118.776350">
        <ele>1043.752</ele>
        <time>2018-12-28T02:10:40Z</time>
      </trkpt>
      <trkpt lat="36.532690" lon="-118.776240">
        <ele>1043.365</ele>
        <time>2018-12-28T02:11:00Z</time>
      </trkpt>
      <trkpt lat="36.532620" lon="-118.776150">
        <ele>1043.076</ele>
        <time>2018-12-28T02:11:20Z</time>
      </trkpt>
      <trkpt lat="36.532570" lon="-118.776080">
        <ele>1042.849</ele>
        <time>2018-12-28T02:11:40Z</time>
      </trkpt>
      <trkpt lat="36.532480" lon="-118.775970">
        <ele>1043.116</ele>
        <time>2018-12-28T02:12:00Z</time>
      </trkpt>
      <trkpt lat="36.532430" lon="-118.775910">
        <ele>1042.276</ele>
        <time>2018-12-28T02:12:20Z</time>
      </trkpt>
      <trkpt lat="36.532350" lon="-118.775820">
        <ele>1040.713</ele>
        <time>2018-12-28T02:12:40Z</time>
      </trkpt>
      <trkpt lat="36.532320" lon="-118.775780">
        <ele>1040.108</ele>
        <time>2018-12-28T02:13:00Z</time>
      </trkpt>
      <trkpt lat="36.532290" lon="-118.775730">
        <ele>1040.294</ele>
        <time>2018-12-28T02:13:20Z</time>
      </trkpt>
      <trkpt lat="36.532270" lon="-118.775710">
        <ele>1040.182</ele>
        <time>2018-12-28T02:13:40Z</time>
      </trkpt>
      <trkpt lat="36.532260" lon="-118.775680">
        <ele>1040.467</ele>
        <time>2018-12-28T02:14:00Z</time>
      </trkpt>
      <trkpt lat="36.532230" lon="-118.775640">
        <ele>1040.147</ele>
        <time>2018-12-28T02:14:20Z</time>
      </trkpt>
      <trkpt lat="36.532220" lon="-118.775600">
        <ele>1040.171</ele>
        <time>2018-12-28T02:14:40Z</time>
      </trkpt>
      <trkpt lat="36.532200" lon="-118.775550">
        <ele>1040.194</ele>
        <time>2018-12-28T02:15:00Z</time>
      </trkpt>
      <trkpt lat="36.532190" lon="-118.775510">
        <ele>1040.345</ele>
        <time>2018-12-28T02:15:20Z</time>
      </trkpt>
      <trkpt lat="36.532180" lon="-118.775460">
        <ele>1040.568</ele>
        <time>2018-12-28T02:15:40Z</time>
      </trkpt>
      <trkpt lat="36.532170" lon="-118.775400">
        <ele>1040.621</ele>
        <time>2018-12-28T02:16:00Z</time>
      </trkpt>
      <trkpt lat="36.532180" lon="-118.775340">
        <ele>1040.541</ele>
        <time>2018-12-28T02:16:20Z</time>
      </trkpt>
      <trkpt lat="36.532180" lon="-118.775300">
        <ele>1040.305</ele>
        <time>2018-12-28T02:16:40Z</time>
      </trkpt>
      <trkpt lat="36.532200" lon="-118.775240">
        <ele>1040.308</ele>
        <time>2018-12-28T02:17:00Z</time>
      </trkpt>
      <trkpt lat="36.532230" lon="-118.775190">
        <ele>1040.415</ele>
        <time>2018-12-28T02:17:20Z</time>
      </trkpt>
      <trkpt lat="36.532260" lon="-118.775160">
        <ele>1040.763</ele>
        <time>2018-12-28T02:17:40Z</time>
      </trkpt>
      <trkpt lat="36.532300" lon="-118.775110">
        <ele>1040.628</ele>
        <time>2018-12-28T02:18:00Z</time>
      </trkpt>
      <trkpt lat="36.532350" lon="-118.775040">
        <ele>1040.118</ele>
        <time>2018-12-28T02:18:20Z</time>
      </trkpt>
      <trkpt lat="36.532400" lon="-118.774980">
        <ele>1039.332</ele>
        <time>2018-12-28T02:18:40Z</time>
      </trkpt>
      <trkpt lat="36.532410" lon="-118.774940">
        <ele>1038.755</ele>
        <time>2018-12-28T02:19:00Z</time>
      </trkpt>
      <trkpt lat="36.532430" lon="-118.774900">
        <ele>1038.176</ele>
        <time>2018-12-28T02:19:20Z</time>
      </trkpt>
      <trkpt lat="36.532440" lon="-118.774830">
        <ele>1037.379</ele>
        <time>2018-12-28T02:19:40Z</time>
      </trkpt>
      <trkpt lat="36.532440" lon="-118.774790">
        <ele>1037.024</ele>
        <time>2018-12-28T02:20:00Z</time>
      </trkpt>
      <trkpt lat="36.532430" lon="-118.774750">
        <ele>1036.604</ele>
        <time>2018-12-28T02:20:20Z</time>
      </trkpt>
      <trkpt lat="36.532420" lon="-118.774710">
        <ele>1036.114</ele>
        <time>2018-12-28T02:20:40Z</time>
      </trkpt>
      <trkpt lat="36.532380" lon="-118.774610">
        <ele>1034.208</ele>
        <time>2018-12-28T02:21:00Z</time>
      </trkpt>
      <trkpt lat="36.532240" lon="-118.774270">
        <ele>1031.135</ele>
        <time>2018-12-28T02:21:20Z</time>
      </trkpt>
      <trkpt lat="36.532100" lon="-118.773930">
        <ele>1031.293</ele>
        <time>2018-12-28T02:21:40Z</time>
      </trkpt>
      <trkpt lat="36.532040" lon="-118.773780">
        <ele>1031.968</ele>
        <time>2018-12-28T02:22:00Z</time>
      </trkpt>
      <trkpt lat="36.532020" lon="-118.773730">
        <ele>1032.098</ele>
        <time>2018-12-28T02:22:20Z</time>
      </trkpt>
      <trkpt lat="36.532000" lon="-118.773680">
        <ele>1031.952</ele>
        <time>2018-12-28T02:22:40Z</time>
      </trkpt>
      <trkpt lat="36.531990" lon="-118.773660">
        <ele>1031.855</ele>
        <time>2018-12-28T02:23:00Z</time>
      </trkpt>
      <trkpt lat="36.531970" lon="-118.773620">
        <ele>1031.656</ele>
        <time>2018-12-28T02:23:20Z</time>
      </trkpt>
      <trkpt lat="36.531950" lon="-118.773600">
        <ele>1031.259</ele>
        <time>2018-12-28T02:23:40Z</time>
      </trkpt>
      <trkpt lat="36.531930" lon="-118.773580">
        <ele>1030.932</ele>
        <time>2018-12-28T02:24:00Z</time>
      </trkpt>
      <trkpt lat="36.531910" lon="-118.773570">
        <ele>1030.592</ele>
        <time>2018-12-28T02:24:20Z</time>
      </trkpt>
      <trkpt lat="36.531890" lon="-118.773560">
        <ele>1030.011</ele>
        <time>2018-12-28T02:24:40Z</time>
      </trkpt>
      <trkpt lat="36.531870" lon="-118.773560">
        <ele>1029.608</ele>
        <time>2018-12-28T02:25:00Z</time>
      </trkpt>
      <trkpt lat="36.531840" lon="-118.773560">
        <ele>1028.856</ele>
        <time>2018-12-28T02:25:20Z</time>
      </trkpt>
      <trkpt lat="36.531820" lon="-118.773570">
        <ele>1028.394</ele>
        <time>2018-12-28T02:25:40Z</time>
      </trkpt>
      <trkpt lat="36.531800" lon="-118.773580">
        <ele>1027.719</ele>
        <time>2018-12-28T02:26:00Z</time>
      </trkpt>
      <trkpt lat="36.531780" lon="-118.773590">
        <ele>1026.889</ele>
        <time>2018-12-28T02:26:20Z</time>
      </trkpt>
      <trkpt lat="36.531760" lon="-118.773610">
        <ele>1025.853</ele>
        <time>2018-12-28T02:26:40Z</time>
      </trkpt>
      <trkpt lat="36.531750" lon="-118.773640">
        <ele>1025.226</ele>
        <time>2018-12-28T02:27:00Z</time>
      </trkpt>
      <trkpt lat="36.531730" lon="-118.773670">
        <ele>1024.157</ele>
        <time>2018-12-28T02:27:20Z</time>
      </trkpt>
      <trkpt lat="36.531730" lon="-118.773710">
        <ele>1023.890</ele>
        <time>2018-12-28T02:27:40Z</time>
      </trkpt>
      <trkpt lat="36.531730" lon="-118.773750">
        <ele>1023.571</ele>
        <time>2018-12-28T02:28:00Z</time>
      </trkpt>
      <trkpt lat="36.531730" lon="-118.773790">
        <ele>1022.941</ele>
        <time>2018-12-28T02:28:20Z</time>
      </trkpt>
      <trkpt lat="36.531750" lon="-118.773830">
        <ele>1023.315</ele>
        <time>2018-12-28T02:28:40Z</time>
      </trkpt>
      <trkpt lat="36.531760" lon="-118.773850">
        <ele>1023.508</ele>
        <time>2018-12-28T02:29:00Z</time>
      </trkpt>
      <trkpt lat="36.531820" lon="-118.773950">
        <ele>1024.480</ele>
        <time>2018-12-28T02:29:20Z</time>
      </trkpt>
      <trkpt lat="36.531870" lon="-118.774010">
        <ele>1024.688</ele>
        <time>2018-12-28T02:29:40Z</time>
      </trkpt>
      <trkpt lat="36.531900" lon="-118.774050">
        <ele>1024.763</ele>
        <time>2018-12-28T02:30:00Z</time>
      </trkpt>
      <trkpt lat="36.531940" lon="-118.774110">
        <ele>1024.743</ele>
        <time>2018-12-28T02:30:20Z</time>
      </trkpt>
      <trkpt lat="36.531970" lon="-118.774150">
        <ele>1024.927</ele>
        <time>2018-12-28T02:30:40Z</time>
      </trkpt>
      <trkpt lat="36.531980" lon="-118.774180">
        <ele>1024.780</ele>
        <time>2018-12-28T02:31:00Z</time>
      </trkpt>
      <trkpt lat="36.532000" lon="-118.774210">
        <ele>1024.861</ele>
        <time>2018-12-28T02:31:20Z</time>
      </trkpt>
      <trkpt lat="36.532010" lon="-118.774250">
        <ele>1024.644</ele>
        <time>2018-12-28T02:31:40Z</time>
      </trkpt>
      <trkpt lat="36.532020" lon="-118.774290">
        <ele>1024.385</ele>
        <time>2018-12-28T02:32:00Z</time>
      </trkpt>
      <trkpt lat="36.532030" lon="-118.774330">
        <ele>1024.589</ele>
        <time>2018-12-28T02:32:20Z</time>
      </trkpt>
      <trkpt lat="36.532030" lon="-118.774370">
        <ele>1024.617</ele>
        <time>2018-12-28T02:32:40Z</time>
      </trkpt>
      <trkpt lat="36.532030" lon="-118.774400">
        <ele>1024.808</ele>
        <time>2018-12-28T02:33:00Z</time>
      </trkpt>
      <trkpt lat="36.532020" lon="-118.774430">
        <ele>1024.731</ele>
        <time>2018-12-28T02:33:20Z</time>
      </trkpt>
      <trkpt lat="36.532020" lon="-118.774450">
        <ele>1024.779</ele>
        <time>2018-12-28T02:33:40Z</time>
      </trkpt>
      <trkpt lat="36.532010" lon="-118.774480">
        <ele>1024.764</ele>
        <time>2018-12-28T02:34:00Z</time>
      </trkpt>
      <trkpt lat="36.531990" lon="-118.774510">
        <ele>1024.594</ele>
        <time>2018-12-28T02:34:20Z</time>
      </trkpt>
      <trkpt lat="36.531970" lon="-118.774530">
        <ele>1024.378</ele>
        <time>2018-12-28T02:34:40Z</time>
      </trkpt>
      <trkpt lat="36.531940" lon="-118.774570">
        <ele>1024.161</ele>
        <time>2018-12-28T02:35:00Z</time>
      </trkpt>
      <trkpt lat="36.531910" lon="-118.774590">
        <ele>1023.962</ele>
        <time>2018-12-28T02:35:20Z</time>
      </trkpt>
      <trkpt lat="36.531870" lon="-118.774620">
        <ele>1023.825</ele>
        <time>2018-12-28T02:35:40Z</time>
      </trkpt>
      <trkpt lat="36.531830" lon="-118.774650">
        <ele>1023.619</ele>
        <time>2018-12-28T02:36:00Z</time>
      </trkpt>
      <trkpt lat="36.531770" lon="-118.774710">
        <ele>1023.109</ele>
        <time>2018-12-28T02:36:20Z</time>
      </trkpt>
      <trkpt lat="36.531670" lon="-118.774840">
        <ele>1022.019</ele>
        <time>2018-12-28T02:36:40Z</time>
      </trkpt>
      <trkpt lat="36.531600" lon="-118.774940">
        <ele>1021.108</ele>
        <time>2018-12-28T02:37:00Z</time>
      </trkpt>
      <trkpt lat="36.531500" lon="-118.775080">
        <ele>1019.774</ele>
        <time>2018-12-28T02:37:20Z</time>
      </trkpt>
      <trkpt lat="36.531420" lon="-118.775200">
        <ele>1017.412</ele>
        <time>2018-12-28T02:37:40Z</time>
      </trkpt>
      <trkpt lat="36.531390" lon="-118.775250">
        <ele>1016.127</ele>
        <time>2018-12-28T02:38:00Z</time>
      </trkpt>
      <trkpt lat="36.531380" lon="-118.775290">
        <ele>1015.397</ele>
        <time>2018-12-28T02:38:20Z</time>
      </trkpt>
      <trkpt lat="36.531360" lon="-118.775320">
        <ele>1014.531</ele>
        <time>2018-12-28T02:38:40Z</time>
      </trkpt>
      <trkpt lat="36.531360" lon="-118.775360">
        <ele>1014.064</ele>
        <time>2018-12-28T02:39:00Z</time>
      </trkpt>
      <trkpt lat="36.531350" lon="-118.775410">
        <ele>1013.115</ele>
        <time>2018-12-28T02:39:20Z</time>
      </trkpt>
      <trkpt lat="36.531350" lon="-118.775480">
        <ele>1010.758</ele>
        <time>2018-12-28T02:39:40Z</time>
      </trkpt>
      <trkpt lat="36.531360" lon="-118.775520">
        <ele>1009.538</ele>
        <time>2018-12-28T02:40:00Z</time>
      </trkpt>
      <trkpt lat="36.531370" lon="-118.775560">
        <ele>1008.470</ele>
        <time>2018-12-28T02:40:20Z</time>
      </trkpt>
      <trkpt lat="36.531380" lon="-118.775600">
        <ele>1007.217</ele>
        <time>2018-12-28T02:40:40Z</time>
      </trkpt>
      <trkpt lat="36.531410" lon="-118.775630">
        <ele>1007.108</ele>
        <time>2018-12-28T02:41:00Z</time>
      </trkpt>
      <trkpt lat="36.531430" lon="-118.775660">
        <ele>1006.836</ele>
        <time>2018-12-28T02:41:20Z</time>
      </trkpt>
      <trkpt lat="36.531460" lon="-118.775690">
        <ele>1006.934</ele>
        <time>2018-12-28T02:41:40Z</time>
      </trkpt>
      <trkpt lat="36.531520" lon="-118.775750">
        <ele>1007.769</ele>
        <time>2018-12-28T02:42:00Z</time>
      </trkpt>
      <trkpt lat="36.531690" lon="-118.775880">
        <ele>1009.359</ele>
        <time>2018-12-28T02:42:20Z</time>
      </trkpt>
      <trkpt lat="36.531750" lon="-118.775940">
        <ele>1009.233</ele>
        <time>2018-12-28T02:42:40Z</time>
      </trkpt>
      <trkpt lat="36.531840" lon="-118.776040">
        <ele>1009.996</ele>
        <time>2018-12-28T02:43:00Z</time>
      </trkpt>
      <trkpt lat="36.531920" lon="-118.776130">
        <ele>1010.777</ele>
        <time>2018-12-28T02:43:20Z</time>
      </trkpt>
      <trkpt lat="36.531970" lon="-118.776200">
        <ele>1010.550</ele>
        <time>2018-12-28T02:43:40Z</time>
      </trkpt>
      <trkpt lat="36.532000" lon="-118.776240">
        <ele>1010.233</ele>
        <time>2018-12-28T02:44:00Z</time>
      </trkpt>
      <trkpt lat="36.532020" lon="-118.776270">
        <ele>1010.223</ele>
        <time>2018-12-28T02:44:20Z</time>
      </trkpt>
      <trkpt lat="36.532030" lon="-118.776300">
        <ele>1010.315</ele>
        <time>2018-12-28T02:44:40Z</time>
      </trkpt>
      <trkpt lat="36.532050" lon="-118.776320">
        <ele>1010.608</ele>
        <time>2018-12-28T02:45:00Z</time>
      </trkpt>
      <trkpt lat="36.532060" lon="-118.776350">
        <ele>1010.636</ele>
        <time>2018-12-28T02:45:20Z</time>
      </trkpt>
      <trkpt lat="36.532060" lon="-118.776390">
        <ele>1010.514</ele>
        <time>2018-12-28T02:45:40Z</time>
      </trkpt>
      <trkpt lat="36.532060" lon="-118.776420">
        <ele>1010.489</ele>
        <time>2018-12-28T02:46:00Z</time>
      </trkpt>
      <trkpt lat="36.532060" lon="-118.776440">
        <ele>1010.349</ele>
        <time>2018-12-28T02:46:20Z</time>
      </trkpt>
      <trkpt lat="36.532050" lon="-118.776470">
        <ele>1010.043</ele>
        <time>2018-12-28T02:46:40Z</time>
      </trkpt>
      <trkpt lat="36.532040" lon="-118.776490">
        <ele>1009.746</ele>
        <time>2018-12-28T02:47:00Z</time>
      </trkpt>
      <trkpt lat="36.532040" lon="-118.776500">
        <ele>1009.637</ele>
        <time>2018-12-28T02:47:20Z</time>
      </trkpt>
      <trkpt lat="36.532020" lon="-118.776520">
        <ele>1009.260</ele>
        <time>2018-12-28T02:47:40Z</time>
      </trkpt>
      <trkpt lat="36.532010" lon="-118.776540">
        <ele>1009.098</ele>
        <time>2018-12-28T02:48:00Z</time>
      </trkpt>
      <trkpt lat="36.531980" lon="-118.776560">
        <ele>1008.615</ele>
        <time>2018-12-28T02:48:20Z</time>
      </trkpt>
      <trkpt lat="36.531960" lon="-118.776560">
        <ele>1008.226</ele>
        <time>2018-12-28T02:48:40Z</time>
      </trkpt>
      <trkpt lat="36.531940" lon="-118.776570">
        <ele>1008.008</ele>
        <time>2018-12-28T02:49:00Z</time>
      </trkpt>
      <trkpt lat="36.531910" lon="-118.776570">
        <ele>1007.692</ele>
        <time>2018-12-28T02:49:20Z</time>
      </trkpt>
      <trkpt lat="36.531890" lon="-118.776560">
        <ele>1007.130</ele>
        <time>2018-12-28T02:49:40Z</time>
      </trkpt>
      <trkpt lat="36.531880" lon="-118.776550">
        <ele>1006.725</ele>
        <time>2018-12-28T02:50:00Z</time>
      </trkpt>
      <trkpt lat="36.531850" lon="-118.776530">
        <ele>1005.725</ele>
        <time>2018-12-28T02:50:20Z</time>
      </trkpt>
      <trkpt lat="36.531840" lon="-118.776520">
        <ele>1005.529</ele>
        <time>2018-12-28T02:50:40Z</time>
      </trkpt>
      <trkpt lat="36.531820" lon="-118.776500">
        <ele>1005.262</ele>
        <time>2018-12-28T02:51:00Z</time>
      </trkpt>
      <trkpt lat="36.531810" lon="-118.776470">
        <ele>1005.243</ele>
        <time>2018-12-28T02:51:20Z</time>
      </trkpt>
      <trkpt lat="36.531800" lon="-118.776450">
        <ele>1005.156</ele>
        <time>2018-12-28T02:51:40Z</time>
      </trkpt>
      <trkpt lat="36.531790" lon="-118.776400">
        <ele>1005.256</ele>
        <time>2018-12-28T02:52:00Z</time>
      </trkpt>
      <trkpt lat="36.531760" lon="-118.776330">
        <ele>1005.059</ele>
        <time>2018-12-28T02:52:20Z</time>
      </trkpt>
      <trkpt lat="36.531740" lon="-118.776270">
        <ele>1004.814</ele>
        <time>2018-12-28T02:52:40Z</time>
      </trkpt>
      <trkpt lat="36.531720" lon="-118.776220">
        <ele>1004.708</ele>
        <time>2018-12-28T02:53:00Z</time>
      </trkpt>
      <trkpt lat="36.531700" lon="-118.776180">
        <ele>1004.768</ele>
        <time>2018-12-28T02:53:20Z</time>
      </trkpt>
      <trkpt lat="36.531690" lon="-118.776160">
        <ele>1004.756</ele>
        <time>2018-12-28T02:53:40Z</time>
      </trkpt>
      <trkpt lat="36.531670" lon="-118.776130">
        <ele>1004.651</ele>
        <time>2018-12-28T02:54:00Z</time>
      </trkpt>
      <trkpt lat="36.531630" lon="-118.776090">
        <ele>1004.221</ele>
        <time>2018-12-28T02:54:20Z</time>
      </trkpt>
      <trkpt lat="36.531580" lon="-118.776050">
        <ele>1003.525</ele>
        <time>2018-12-28T02:54:40Z</time>
      </trkpt>
      <trkpt lat="36.531510" lon="-118.776000">
        <ele>1002.538</ele>
        <time>2018-12-28T02:55:00Z</time>
      </trkpt>
      <trkpt lat="36.531370" lon="-118.775900">
        <ele>1000.999</ele>
        <time>2018-12-28T02:55:20Z</time>
      </trkpt>
      <trkpt lat="36.531220" lon="-118.775810">
        <ele>997.832</ele>
        <time>2018-12-28T02:55:40Z</time>
      </trkpt>
      <trkpt lat="36.531100" lon="-118.775730">
        <ele>996.112</ele>
        <time>2018-12-28T02:56:00Z</time>
      </trkpt>
      <trkpt lat="36.531030" lon="-118.775690">
        <ele>995.332</ele>
        <time>2018-12-28T02:56:20Z</time>
      </trkpt>
      <trkpt lat="36.530900" lon="-118.775610">
        <ele>993.905</ele>
        <time>2018-12-28T02:56:40Z</time>
      </trkpt>
      <trkpt lat="36.530820" lon="-118.775540">
        <ele>993.008</ele>
        <time>2018-12-28T02:57:00Z</time>
      </trkpt>
      <trkpt lat="36.530780" lon="-118.775500">
        <ele>992.514</ele>
        <time>2018-12-28T02:57:20Z</time>
      </trkpt>
      <trkpt lat="36.530750" lon="-118.775450">
        <ele>992.392</ele>
        <time>2018-12-28T02:57:40Z</time>
      </trkpt>
      <trkpt lat="36.530720" lon="-118.775410">
        <ele>991.967</ele>
        <time>2018-12-28T02:58:00Z</time>
      </trkpt>
      <trkpt lat="36.530710" lon="-118.775370">
        <ele>991.837</ele>
        <time>2018-12-28T02:58:20Z</time>
      </trkpt>
      <trkpt lat="36.530700" lon="-118.775320">
        <ele>991.841</ele>
        <time>2018-12-28T02:58:40Z</time>
      </trkpt>
      <trkpt lat="36.530700" lon="-118.775270">
        <ele>992.084</ele>
        <time>2018-12-28T02:59:00Z</time>
      </trkpt>
      <trkpt lat="36.530700" lon="-118.775220">
        <ele>992.315</ele>
        <time>2018-12-28T02:59:20Z</time>
      </trkpt>
      <trkpt lat="36.530710" lon="-118.775180">
        <ele>992.878</ele>
        <time>2018-12-28T02:59:40Z</time>
      </trkpt>
      <trkpt lat="36.530720" lon="-118.775140">
        <ele>993.427</ele>
        <time>2018-12-28T03:00:00Z</time>
      </trkpt>
      <trkpt lat="36.530740" lon="-118.775100">
        <ele>993.968</ele>
        <time>2018-12-28T03:00:20Z</time>
      </trkpt>
      <trkpt lat="36.530800" lon="-118.775010">
        <ele>995.614</ele>
        <time>2018-12-28T03:00:40Z</time>
      </trkpt>
      <trkpt lat="36.530840" lon="-118.774930">
        <ele>996.608</ele>
        <time>2018-12-28T03:01:00Z</time>
      </trkpt>
      <trkpt lat="36.530860" lon="-118.774900">
        <ele>997.135</ele>
        <time>2018-12-28T03:01:20Z</time>
      </trkpt>
      <trkpt lat="36.530870" lon="-118.774860">
        <ele>997.363</ele>
        <time>2018-12-28T03:01:40Z</time>
      </trkpt>
      <trkpt lat="36.530870" lon="-118.774810">
        <ele>996.878</ele>
        <time>2018-12-28T03:02:00Z</time>
      </trkpt>
      <trkpt lat="36.530870" lon="-118.774780">
        <ele>996.528</ele>
        <time>2018-12-28T03:02:20Z</time>
      </trkpt>
      <trkpt lat="36.530860" lon="-118.774740">
        <ele>995.892</ele>
        <time>2018-12-28T03:02:40Z</time>
      </trkpt>
      <trkpt lat="36.530840" lon="-118.774710">
        <ele>995.125</ele>
        <time>2018-12-28T03:03:00Z</time>
      </trkpt>
      <trkpt lat="36.530830" lon="-118.774690">
        <ele>994.746</ele>
        <time>2018-12-28T03:03:20Z</time>
      </trkpt>
      <trkpt lat="36.530800" lon="-118.774670">
        <ele>993.969</ele>
        <time>2018-12-28T03:03:40Z</time>
      </trkpt>
      <trkpt lat="36.530770" lon="-118.774660">
        <ele>993.272</ele>
        <time>2018-12-28T03:04:00Z</time>
      </trkpt>
      <trkpt lat="36.530730" lon="-118.774640">
        <ele>992.313</ele>
        <time>2018-12-28T03:04:20Z</time>
      </trkpt>
      <trkpt lat="36.530680" lon="-118.774630">
        <ele>991.414</ele>
        <time>2018-12-28T03:04:40Z</time>
      </trkpt>
      <trkpt lat="36.530550" lon="-118.774610">
        <ele>990.008</ele>
        <time>2018-12-28T03:05:00Z</time>
      </trkpt>
      <trkpt lat="36.530470" lon="-118.774590">
        <ele>989.540</ele>
        <time>2018-12-28T03:05:20Z</time>
      </trkpt>
      <trkpt lat="36.530440" lon="-118.774580">
        <ele>989.578</ele>
        <time>2018-12-28T03:05:40Z</time>
      </trkpt>
      <trkpt lat="36.530400" lon="-118.774570">
        <ele>989.053</ele>
        <time>2018-12-28T03:06:00Z</time>
      </trkpt>
      <trkpt lat="36.530360" lon="-118.774560">
        <ele>988.283</ele>
        <time>2018-12-28T03:06:20Z</time>
      </trkpt>
      <trkpt lat="36.530290" lon="-118.774530">
        <ele>987.077</ele>
        <time>2018-12-28T03:06:40Z</time>
      </trkpt>
      <trkpt lat="36.530190" lon="-118.774480">
        <ele>985.540</ele>
        <time>2018-12-28T03:07:00Z</time>
      </trkpt>
      <trkpt lat="36.530140" lon="-118.774450">
        <ele>984.971</ele>
        <time>2018-12-28T03:07:20Z</time>
      </trkpt>
      <trkpt lat="36.530080" lon="-118.774420">
        <ele>984.854</ele>
        <time>2018-12-28T03:07:40Z</time>
      </trkpt>
      <trkpt lat="36.530040" lon="-118.774400">
        <ele>984.738</ele>
        <time>2018-12-28T03:08:00Z</time>
      </trkpt>
      <trkpt lat="36.529970" lon="-118.774360">
        <ele>984.770</ele>
        <time>2018-12-28T03:08:20Z</time>
      </trkpt>
      <trkpt lat="36.529890" lon="-118.774330">
        <ele>984.317</ele>
        <time>2018-12-28T03:08:40Z</time>
      </trkpt>
      <trkpt lat="36.529820" lon="-118.774300">
        <ele>984.008</ele>
        <time>2018-12-28T03:09:00Z</time>
      </trkpt>
      <trkpt lat="36.529750" lon="-118.774260">
        <ele>983.876</ele>
        <time>2018-12-28T03:09:20Z</time>
      </trkpt>
      <trkpt lat="36.529720" lon="-118.774240">
        <ele>983.774</ele>
        <time>2018-12-28T03:09:40Z</time>
      </trkpt>
      <trkpt lat="36.529670" lon="-118.774200">
        <ele>983.899</ele>
        <time>2018-12-28T03:10:00Z</time>
      </trkpt>
      <trkpt lat="36.529640" lon="-118.774160">
        <ele>984.069</ele>
        <time>2018-12-28T03:10:20Z</time>
      </trkpt>
      <trkpt lat="36.529630" lon="-118.774140">
        <ele>984.263</ele>
        <time>2018-12-28T03:10:40Z</time>
      </trkpt>
      <trkpt lat="36.529610" lon="-118.774120">
        <ele>984.396</ele>
        <time>2018-12-28T03:11:00Z</time>
      </trkpt>
      <trkpt lat="36.529590" lon="-118.774080">
        <ele>984.747</ele>
        <time>2018-12-28T03:11:20Z</time>
      </trkpt>
      <trkpt lat="36.529570" lon="-118.774020">
        <ele>985.390</ele>
        <time>2018-12-28T03:11:40Z</time>
      </trkpt>
      <trkpt lat="36.529550" lon="-118.773970">
        <ele>985.549</ele>
        <time>2018-12-28T03:12:00Z</time>
      </trkpt>
      <trkpt lat="36.529540" lon="-118.773910">
        <ele>986.002</ele>
        <time>2018-12-28T03:12:20Z</time>
      </trkpt>
      <trkpt lat="36.529520" lon="-118.773840">
        <ele>986.422</ele>
        <time>2018-12-28T03:12:40Z</time>
      </trkpt>
      <trkpt lat="36.529510" lon="-118.773810">
        <ele>986.608</ele>
        <time>2018-12-28T03:13:00Z</time>
      </trkpt>
      <trkpt lat="36.529490" lon="-118.773770">
        <ele>986.667</ele>
        <time>2018-12-28T03:13:20Z</time>
      </trkpt>
      <trkpt lat="36.529480" lon="-118.773750">
        <ele>986.695</ele>
        <time>2018-12-28T03:13:40Z</time>
      </trkpt>
      <trkpt lat="36.529470" lon="-118.773730">
        <ele>986.660</ele>
        <time>2018-12-28T03:14:00Z</time>
      </trkpt>
      <trkpt lat="36.529450" lon="-118.773710">
        <ele>986.440</ele>
        <time>2018-12-28T03:14:20Z</time>
      </trkpt>
      <trkpt lat="36.529430" lon="-118.773700">
        <ele>986.144</ele>
        <time>2018-12-28T03:14:40Z</time>
      </trkpt>
      <trkpt lat="36.529400" lon="-118.773700">
        <ele>985.587</ele>
        <time>2018-12-28T03:15:00Z</time>
      </trkpt>
      <trkpt lat="36.529380" lon="-118.773700">
        <ele>985.038</ele>
        <time>2018-12-28T03:15:20Z</time>
      </trkpt>
      <trkpt lat="36.529350" lon="-118.773710">
        <ele>984.371</ele>
        <time>2018-12-28T03:15:40Z</time>
      </trkpt>
      <trkpt lat="36.529320" lon="-118.773720">
        <ele>983.699</ele>
        <time>2018-12-28T03:16:00Z</time>
      </trkpt>
      <trkpt lat="36.529300" lon="-118.773740">
        <ele>983.107</ele>
        <time>2018-12-28T03:16:20Z</time>
      </trkpt>
      <trkpt lat="36.529290" lon="-118.773770">
        <ele>982.727</ele>
        <time>2018-12-28T03:16:40Z</time>
      </trkpt>
      <trkpt lat="36.529270" lon="-118.773810">
        <ele>982.008</ele>
        <time>2018-12-28T03:17:00Z</time>
      </trkpt>
      <trkpt lat="36.529270" lon="-118.773850">
        <ele>981.612</ele>
        <time>2018-12-28T03:17:20Z</time>
      </trkpt>
      <trkpt lat="36.529270" lon="-118.773880">
        <ele>981.380</ele>
        <time>2018-12-28T03:17:40Z</time>
      </trkpt>
      <trkpt lat="36.529270" lon="-118.773910">
        <ele>981.015</ele>
        <time>2018-12-28T03:18:00Z</time>
      </trkpt>
      <trkpt lat="36.529280" lon="-118.773960">
        <ele>980.715</ele>
        <time>2018-12-28T03:18:20Z</time>
      </trkpt>
      <trkpt lat="36.529290" lon="-118.774000">
        <ele>980.539</ele>
        <time>2018-12-28T03:18:40Z</time>
      </trkpt>
      <trkpt lat="36.529320" lon="-118.774070">
        <ele>980.372</ele>
        <time>2018-12-28T03:19:00Z</time>
      </trkpt>
      <trkpt lat="36.529330" lon="-118.774100">
        <ele>980.283</ele>
        <time>2018-12-28T03:19:20Z</time>
      </trkpt>
      <trkpt lat="36.529380" lon="-118.774190">
        <ele>980.056</ele>
        <time>2018-12-28T03:19:40Z</time>
      </trkpt>
      <trkpt lat="36.529410" lon="-118.774250">
        <ele>979.854</ele>
        <time>2018-12-28T03:20:00Z</time>
      </trkpt>
      <trkpt lat="36.529490" lon="-118.774370">
        <ele>979.056</ele>
        <time>2018-12-28T03:20:20Z</time>
      </trkpt>
      <trkpt lat="36.529560" lon="-118.774480">
        <ele>978.311</ele>
        <time>2018-12-28T03:20:40Z</time>
      </trkpt>
      <trkpt lat="36.529650" lon="-118.774570">
        <ele>978.108</ele>
        <time>2018-12-28T03:21:00Z</time>
      </trkpt>
      <trkpt lat="36.529680" lon="-118.774610">
        <ele>977.818</ele>
        <time>2018-12-28T03:21:20Z</time>
      </trkpt>
      <trkpt lat="36.529730" lon="-118.774650">
        <ele>977.866</ele>
        <time>2018-12-28T03:21:40Z</time>
      </trkpt>
      <trkpt lat="36.529780" lon="-118.774690">
        <ele>977.961</ele>
        <time>2018-12-28T03:22:00Z</time>
      </trkpt>
      <trkpt lat="36.529830" lon="-118.774720">
        <ele>978.291</ele>
        <time>2018-12-28T03:22:20Z</time>
      </trkpt>
      <trkpt lat="36.529900" lon="-118.774780">
        <ele>977.915</ele>
        <time>2018-12-28T03:22:40Z</time>
      </trkpt>
      <trkpt lat="36.529980" lon="-118.774840">
        <ele>976.998</ele>
        <time>2018-12-28T03:23:00Z</time>
      </trkpt>
      <trkpt lat="36.530020" lon="-118.774870">
        <ele>976.369</ele>
        <time>2018-12-28T03:23:20Z</time>
      </trkpt>
      <trkpt lat="36.530050" lon="-118.774900">
        <ele>975.962</ele>
        <time>2018-12-28T03:23:40Z</time>
      </trkpt>
      <trkpt lat="36.530080" lon="-118.774940">
        <ele>975.543</ele>
        <time>2018-12-28T03:24:00Z</time>
      </trkpt>
      <trkpt lat="36.530100" lon="-118.774970">
        <ele>975.264</ele>
        <time>2018-12-28T03:24:20Z</time>
      </trkpt>
      <trkpt lat="36.530110" lon="-118.775010">
        <ele>974.910</ele>
        <time>2018-12-28T03:24:40Z</time>
      </trkpt>
      <trkpt lat="36.530120" lon="-118.775060">
        <ele>974.408</ele>
        <time>2018-12-28T03:25:00Z</time>
      </trkpt>
      <trkpt lat="36.530110" lon="-118.775090">
        <ele>974.197</ele>
        <time>2018-12-28T03:25:20Z</time>
      </trkpt>
      <trkpt lat="36.530100" lon="-118.775130">
        <ele>973.775</ele>
        <time>2018-12-28T03:25:40Z</time>
      </trkpt>
      <trkpt lat="36.530080" lon="-118.775170">
        <ele>973.520</ele>
        <time>2018-12-28T03:26:00Z</time>
      </trkpt>
      <trkpt lat="36.530050" lon="-118.775190">
        <ele>973.320</ele>
        <time>2018-12-28T03:26:20Z</time>
      </trkpt>
      <trkpt lat="36.530040" lon="-118.775200">
        <ele>973.224</ele>
        <time>2018-12-28T03:26:40Z</time>
      </trkpt>
      <trkpt lat="36.530030" lon="-118.775210">
        <ele>973.197</ele>
        <time>2018-12-28T03:27:00Z</time>
      </trkpt>
      <trkpt lat="36.529990" lon="-118.775220">
        <ele>972.918</ele>
        <time>2018-12-28T03:27:20Z</time>
      </trkpt>
      <trkpt lat="36.529960" lon="-118.775220">
        <ele>972.621</ele>
        <time>2018-12-28T03:27:40Z</time>
      </trkpt>
      <trkpt lat="36.529930" lon="-118.775210">
        <ele>972.459</ele>
        <time>2018-12-28T03:28:00Z</time>
      </trkpt>
      <trkpt lat="36.529910" lon="-118.775200">
        <ele>972.303</ele>
        <time>2018-12-28T03:28:20Z</time>
      </trkpt>
      <trkpt lat="36.529890" lon="-118.775180">
        <ele>972.223</ele>
        <time>2018-12-28T03:28:40Z</time>
      </trkpt>
      <trkpt lat="36.529870" lon="-118.775160">
        <ele>972.008</ele>
        <time>2018-12-28T03:29:00Z</time>
      </trkpt>
      <trkpt lat="36.529850" lon="-118.775130">
        <ele>972.048</ele>
        <time>2018-12-28T03:29:20Z</time>
      </trkpt>
      <trkpt lat="36.529850" lon="-118.775120">
        <ele>972.276</ele>
        <time>2018-12-28T03:29:40Z</time>
      </trkpt>
      <trkpt lat="36.529800" lon="-118.775040">
        <ele>972.951</ele>
        <time>2018-12-28T03:30:00Z</time>
      </trkpt>
      <trkpt lat="36.529770" lon="-118.774980">
        <ele>973.471</ele>
        <time>2018-12-28T03:30:20Z</time>
      </trkpt>
      <trkpt lat="36.529740" lon="-118.774920">
        <ele>973.945</ele>
        <time>2018-12-28T03:30:40Z</time>
      </trkpt>
      <trkpt lat="36.529720" lon="-118.774900">
        <ele>973.998</ele>
        <time>2018-12-28T03:31:00Z</time>
      </trkpt>
      <trkpt lat="36.529680" lon="-118.774860">
        <ele>973.919</ele>
        <time>2018-12-28T03:31:20Z</time>
      </trkpt>
      <trkpt lat="36.529650" lon="-118.774830">
        <ele>973.882</ele>
        <time>2018-12-28T03:31:40Z</time>
      </trkpt>
      <trkpt lat="36.529610" lon="-118.774800">
        <ele>973.787</ele>
        <time>2018-12-28T03:32:00Z</time>
      </trkpt>
      <trkpt lat="36.529390" lon="-118.774660">
        <ele>971.842</ele>
        <time>2018-12-28T03:32:20Z</time>
      </trkpt>
      <trkpt lat="36.529300" lon="-118.774600">
        <ele>971.226</ele>
        <time>2018-12-28T03:32:40Z</time>
      </trkpt>
      <trkpt lat="36.529260" lon="-118.774560">
        <ele>970.908</ele>
        <time>2018-12-28T03:33:00Z</time>
      </trkpt>
      <trkpt lat="36.529230" lon="-118.774530">
        <ele>970.781</ele>
        <time>2018-12-28T03:33:20Z</time>
      </trkpt>
      <trkpt lat="36.529190" lon="-118.774470">
        <ele>970.869</ele>
        <time>2018-12-28T03:33:40Z</time>
      </trkpt>
      <trkpt lat="36.529130" lon="-118.774400">
        <ele>970.524</ele>
        <time>2018-12-28T03:34:00Z</time>
      </trkpt>
      <trkpt lat="36.529090" lon="-118.774360">
        <ele>970.114</ele>
        <time>2018-12-28T03:34:20Z</time>
      </trkpt>
      <trkpt lat="36.529050" lon="-118.774320">
        <ele>969.728</ele>
        <time>2018-12-28T03:34:40Z</time>
      </trkpt>
      <trkpt lat="36.529010" lon="-118.774290">
        <ele>969.191</ele>
        <time>2018-12-28T03:35:00Z</time>
      </trkpt>
      <trkpt lat="36.528970" lon="-118.774270">
        <ele>968.242</ele>
        <time>2018-12-28T03:35:20Z</time>
      </trkpt>
      <trkpt lat="36.528910" lon="-118.774240">
        <ele>966.795</ele>
        <time>2018-12-28T03:35:40Z</time>
      </trkpt>
      <trkpt lat="36.528750" lon="-118.774160">
        <ele>961.527</ele>
        <time>2018-12-28T03:36:00Z</time>
      </trkpt>
      <trkpt lat="36.528700" lon="-118.774130">
        <ele>960.568</ele>
        <time>2018-12-28T03:36:20Z</time>
      </trkpt>
      <trkpt lat="36.528670" lon="-118.774110">
        <ele>960.014</ele>
        <time>2018-12-28T03:36:40Z</time>
      </trkpt>
      <trkpt lat="36.528630" lon="-118.774080">
        <ele>959.308</ele>
        <time>2018-12-28T03:37:00Z</time>
      </trkpt>
      <trkpt lat="36.528600" lon="-118.774040">
        <ele>959.085</ele>
        <time>2018-12-28T03:37:20Z</time>
      </trkpt>
      <trkpt lat="36.528500" lon="-118.773930">
        <ele>958.443</ele>
        <time>2018-12-28T03:37:40Z</time>
      </trkpt>
      <trkpt lat="36.528440" lon="-118.773840">
        <ele>958.428</ele>
        <time>2018-12-28T03:38:00Z</time>
      </trkpt>
      <trkpt lat="36.528350" lon="-118.773700">
        <ele>958.768</ele>
        <time>2018-12-28T03:38:20Z</time>
      </trkpt>
      <trkpt lat="36.528220" lon="-118.773520">
        <ele>959.142</ele>
        <time>2018-12-28T03:38:40Z</time>
      </trkpt>
      <trkpt lat="36.528160" lon="-118.773430">
        <ele>958.745</ele>
        <time>2018-12-28T03:39:00Z</time>
      </trkpt>
      <trkpt lat="36.528070" lon="-118.773320">
        <ele>956.866</ele>
        <time>2018-12-28T03:39:20Z</time>
      </trkpt>
      <trkpt lat="36.528010" lon="-118.773240">
        <ele>955.159</ele>
        <time>2018-12-28T03:39:40Z</time>
      </trkpt>
      <trkpt lat="36.527930" lon="-118.773150">
        <ele>952.885</ele>
        <time>2018-12-28T03:40:00Z</time>
      </trkpt>
      <trkpt lat="36.527870" lon="-118.773090">
        <ele>951.589</ele>
        <time>2018-12-28T03:40:20Z</time>
      </trkpt>
      <trkpt lat="36.527760" lon="-118.772990">
        <ele>949.617</ele>
        <time>2018-12-28T03:40:40Z</time>
      </trkpt>
      <trkpt lat="36.527640" lon="-118.772890">
        <ele>948.308</ele>
        <time>2018-12-28T03:41:00Z</time>
      </trkpt>
      <trkpt lat="36.527580" lon="-118.772860">
        <ele>947.931</ele>
        <time>2018-12-28T03:41:20Z</time>
      </trkpt>
      <trkpt lat="36.527360" lon="-118.772730">
        <ele>946.499</ele>
        <time>2018-12-28T03:41:40Z</time>
      </trkpt>
      <trkpt lat="36.527350" lon="-118.772720">
        <ele>946.484</ele>
        <time>2018-12-28T03:42:00Z</time>
      </trkpt>
      <trkpt lat="36.527300" lon="-118.772700">
        <ele>945.834</ele>
        <time>2018-12-28T03:42:20Z</time>
      </trkpt>
      <trkpt lat="36.527240" lon="-118.772660">
        <ele>945.538</ele>
        <time>2018-12-28T03:42:40Z</time>
      </trkpt>
      <trkpt lat="36.527210" lon="-118.772620">
        <ele>945.721</ele>
        <time>2018-12-28T03:43:00Z</time>
      </trkpt>
      <trkpt lat="36.527170" lon="-118.772580">
        <ele>945.782</ele>
        <time>2018-12-28T03:43:20Z</time>
      </trkpt>
      <trkpt lat="36.527130" lon="-118.772520">
        <ele>946.025</ele>
        <time>2018-12-28T03:43:40Z</time>
      </trkpt>
      <trkpt lat="36.527080" lon="-118.772450">
        <ele>946.268</ele>
        <time>2018-12-28T03:44:00Z</time>
      </trkpt>
      <trkpt lat="36.527030" lon="-118.772370">
        <ele>946.342</ele>
        <time>2018-12-28T03:44:20Z</time>
      </trkpt>
      <trkpt lat="36.526950" lon="-118.772280">
        <ele>945.726</ele>
        <time>2018-12-28T03:44:40Z</time>
      </trkpt>
      <trkpt lat="36.526910" lon="-118.772220">
        <ele>945.508</ele>
        <time>2018-12-28T03:45:00Z</time>
      </trkpt>
      <trkpt lat="36.526880" lon="-118.772180">
        <ele>945.169</ele>
        <time>2018-12-28T03:45:20Z</time>
      </trkpt>
      <trkpt lat="36.526860" lon="-118.772140">
        <ele>945.127</ele>
        <time>2018-12-28T03:45:40Z</time>
      </trkpt>
      <trkpt lat="36.526840" lon="-118.772100">
        <ele>945.072</ele>
        <time>2018-12-28T03:46:00Z</time>
      </trkpt>
      <trkpt lat="36.526830" lon="-118.772060">
        <ele>944.912</ele>
        <time>2018-12-28T03:46:20Z</time>
      </trkpt>
      <trkpt lat="36.526820" lon="-118.772010">
        <ele>944.676</ele>
        <time>2018-12-28T03:46:40Z</time>
      </trkpt>
      <trkpt lat="36.526810" lon="-118.771970">
        <ele>944.369</ele>
        <time>2018-12-28T03:47:00Z</time>
      </trkpt>
      <trkpt lat="36.526820" lon="-118.771920">
        <ele>944.790</ele>
        <time>2018-12-28T03:47:20Z</time>
      </trkpt>
      <trkpt lat="36.526820" lon="-118.771900">
        <ele>944.863</ele>
        <time>2018-12-28T03:47:40Z</time>
      </trkpt>
      <trkpt lat="36.526820" lon="-118.771870">
        <ele>944.839</ele>
        <time>2018-12-28T03:48:00Z</time>
      </trkpt>
      <trkpt lat="36.526840" lon="-118.771810">
        <ele>945.801</ele>
        <time>2018-12-28T03:48:20Z</time>
      </trkpt>
      <trkpt lat="36.526860" lon="-118.771740">
        <ele>945.521</ele>
        <time>2018-12-28T03:48:40Z</time>
      </trkpt>
      <trkpt lat="36.526880" lon="-118.771670">
        <ele>945.108</ele>
        <time>2018-12-28T03:49:00Z</time>
      </trkpt>
      <trkpt lat="36.526900" lon="-118.771590">
        <ele>944.556</ele>
        <time>2018-12-28T03:49:20Z</time>
      </trkpt>
      <trkpt lat="36.526920" lon="-118.771540">
        <ele>944.474</ele>
        <time>2018-12-28T03:49:40Z</time>
      </trkpt>
      <trkpt lat="36.526940" lon="-118.771490">
        <ele>943.689</ele>
        <time>2018-12-28T03:50:00Z</time>
      </trkpt>
      <trkpt lat="36.526950" lon="-118.771430">
        <ele>941.899</ele>
        <time>2018-12-28T03:50:20Z</time>
      </trkpt>
      <trkpt lat="36.526970" lon="-118.771380">
        <ele>940.733</ele>
        <time>2018-12-28T03:50:40Z</time>
      </trkpt>
      <trkpt lat="36.526970" lon="-118.771350">
        <ele>939.676</ele>
        <time>2018-12-28T03:51:00Z</time>
      </trkpt>
      <trkpt lat="36.526970" lon="-118.771330">
        <ele>938.937</ele>
        <time>2018-12-28T03:51:20Z</time>
      </trkpt>
      <trkpt lat="36.526960" lon="-118.771290">
        <ele>937.040</ele>
        <time>2018-12-28T03:51:40Z</time>
      </trkpt>
      <trkpt lat="36.526960" lon="-118.771260">
        <ele>935.916</ele>
        <time>2018-12-28T03:52:00Z</time>
      </trkpt>
      <trkpt lat="36.526940" lon="-118.771230">
        <ele>935.076</ele>
        <time>2018-12-28T03:52:20Z</time>
      </trkpt>
      <trkpt lat="36.526920" lon="-118.771180">
        <ele>935.113</ele>
        <time>2018-12-28T03:52:40Z</time>
      </trkpt>
      <trkpt lat="36.526890" lon="-118.771150">
        <ele>934.908</ele>
        <time>2018-12-28T03:53:00Z</time>
      </trkpt>
      <trkpt lat="36.526860" lon="-118.771120">
        <ele>934.914</ele>
        <time>2018-12-28T03:53:20Z</time>
      </trkpt>
      <trkpt lat="36.526820" lon="-118.771100">
        <ele>934.822</ele>
        <time>2018-12-28T03:53:40Z</time>
      </trkpt>
      <trkpt lat="36.526790" lon="-118.771100">
        <ele>934.677</ele>
        <time>2018-12-28T03:54:00Z</time>
      </trkpt>
      <trkpt lat="36.526760" lon="-118.771090">
        <ele>934.857</ele>
        <time>2018-12-28T03:54:20Z</time>
      </trkpt>
      <trkpt lat="36.526730" lon="-118.771090">
        <ele>934.711</ele>
        <time>2018-12-28T03:54:40Z</time>
      </trkpt>
      <trkpt lat="36.526630" lon="-118.771110">
        <ele>933.734</ele>
        <time>2018-12-28T03:55:00Z</time>
      </trkpt>
      <trkpt lat="36.526570" lon="-118.771110">
        <ele>933.535</ele>
        <time>2018-12-28T03:55:20Z</time>
      </trkpt>
      <trkpt lat="36.526530" lon="-118.771120">
        <ele>933.048</ele>
        <time>2018-12-28T03:55:40Z</time>
      </trkpt>
      <trkpt lat="36.526480" lon="-118.771120">
        <ele>932.717</ele>
        <time>2018-12-28T03:56:00Z</time>
      </trkpt>
      <trkpt lat="36.526390" lon="-118.771130">
        <ele>931.887</ele>
        <time>2018-12-28T03:56:20Z</time>
      </trkpt>
      <trkpt lat="36.526340" lon="-118.771130">
        <ele>931.515</ele>
        <time>2018-12-28T03:56:40Z</time>
      </trkpt>
      <trkpt lat="36.526230" lon="-118.771120">
        <ele>930.908</ele>
        <time>2018-12-28T03:57:00Z</time>
      </trkpt>
      <trkpt lat="36.526150" lon="-118.771120">
        <ele>929.314</ele>
        <time>2018-12-28T03:57:20Z</time>
      </trkpt>
      <trkpt lat="36.526080" lon="-118.771120">
        <ele>927.922</ele>
        <time>2018-12-28T03:57:40Z</time>
      </trkpt>
      <trkpt lat="36.526000" lon="-118.771130">
        <ele>926.027</ele>
        <time>2018-12-28T03:58:00Z</time>
      </trkpt>
      <trkpt lat="36.525920" lon="-118.771130">
        <ele>924.797</ele>
        <time>2018-12-28T03:58:20Z</time>
      </trkpt>
      <trkpt lat="36.525820" lon="-118.771120">
        <ele>923.621</ele>
        <time>2018-12-28T03:58:40Z</time>
      </trkpt>
      <trkpt lat="36.525710" lon="-118.771100">
        <ele>922.654</ele>
        <time>2018-12-28T03:59:00Z</time>
      </trkpt>
      <trkpt lat="36.525570" lon="-118.771070">
        <ele>921.565</ele>
        <time>2018-12-28T03:59:20Z</time>
      </trkpt>
      <trkpt lat="36.525510" lon="-118.771050">
        <ele>921.358</ele>
        <time>2018-12-28T03:59:40Z</time>
      </trkpt>
      <trkpt lat="36.525450" lon="-118.771030">
        <ele>921.257</ele>
        <time>2018-12-28T04:00:00Z</time>
      </trkpt>
      <trkpt lat="36.525370" lon="-118.770990">
        <ele>921.000</ele>
        <time>2018-12-28T04:00:20Z</time>
      </trkpt>
      <trkpt lat="36.525150" lon="-118.770890">
        <ele>919.320</ele>
        <time>2018-12-28T04:00:40Z</time>
      </trkpt>
      <trkpt lat="36.525050" lon="-118.770840">
        <ele>916.808</ele>
        <time>2018-12-28T04:01:00Z</time>
      </trkpt>
      <trkpt lat="36.524980" lon="-118.770790">
        <ele>915.238</ele>
        <time>2018-12-28T04:01:20Z</time>
      </trkpt>
      <trkpt lat="36.524920" lon="-118.770740">
        <ele>913.866</ele>
        <time>2018-12-28T04:01:40Z</time>
      </trkpt>
      <trkpt lat="36.524870" lon="-118.770680">
        <ele>913.081</ele>
        <time>2018-12-28T04:02:00Z</time>
      </trkpt>
      <trkpt lat="36.524840" lon="-118.770660">
        <ele>912.531</ele>
        <time>2018-12-28T04:02:20Z</time>
      </trkpt>
      <trkpt lat="36.524810" lon="-118.770640">
        <ele>912.455</ele>
        <time>2018-12-28T04:02:40Z</time>
      </trkpt>
      <trkpt lat="36.524760" lon="-118.770610">
        <ele>912.098</ele>
        <time>2018-12-28T04:03:00Z</time>
      </trkpt>
      <trkpt lat="36.524730" lon="-118.770600">
        <ele>911.799</ele>
        <time>2018-12-28T04:03:20Z</time>
      </trkpt>
      <trkpt lat="36.524670" lon="-118.770600">
        <ele>910.472</ele>
        <time>2018-12-28T04:03:40Z</time>
      </trkpt>
      <trkpt lat="36.524580" lon="-118.770610">
        <ele>908.126</ele>
        <time>2018-12-28T04:04:00Z</time>
      </trkpt>
      <trkpt lat="36.524460" lon="-118.770600">
        <ele>908.547</ele>
        <time>2018-12-28T04:04:20Z</time>
      </trkpt>
      <trkpt lat="36.524370" lon="-118.770590">
        <ele>908.711</ele>
        <time>2018-12-28T04:04:40Z</time>
      </trkpt>
      <trkpt lat="36.524240" lon="-118.770540">
        <ele>909.108</ele>
        <time>2018-12-28T04:05:00Z</time>
      </trkpt>
      <trkpt lat="36.524170" lon="-118.770490">
        <ele>909.575</ele>
        <time>2018-12-28T04:05:20Z</time>
      </trkpt>
      <trkpt lat="36.524110" lon="-118.770440">
        <ele>910.083</ele>
        <time>2018-12-28T04:05:40Z</time>
      </trkpt>
      <trkpt lat="36.524060" lon="-118.770400">
        <ele>910.328</ele>
        <time>2018-12-28T04:06:00Z</time>
      </trkpt>
      <trkpt lat="36.524000" lon="-118.770330">
        <ele>910.898</ele>
        <time>2018-12-28T04:06:20Z</time>
      </trkpt>
      <trkpt lat="36.523950" lon="-118.770250">
        <ele>911.642</ele>
        <time>2018-12-28T04:06:40Z</time>
      </trkpt>
      <trkpt lat="36.523870" lon="-118.770120">
        <ele>912.535</ele>
        <time>2018-12-28T04:07:00Z</time>
      </trkpt>
      <trkpt lat="36.523830" lon="-118.770050">
        <ele>912.646</ele>
        <time>2018-12-28T04:07:20Z</time>
      </trkpt>
      <trkpt lat="36.523800" lon="-118.770020">
        <ele>912.199</ele>
        <time>2018-12-28T04:07:40Z</time>
      </trkpt>
      <trkpt lat="36.523770" lon="-118.769980">
        <ele>911.761</ele>
        <time>2018-12-28T04:08:00Z</time>
      </trkpt>
      <trkpt lat="36.523750" lon="-118.769960">
        <ele>911.221</ele>
        <time>2018-12-28T04:08:20Z</time>
      </trkpt>
      <trkpt lat="36.523730" lon="-118.769950">
        <ele>910.913</ele>
        <time>2018-12-28T04:08:40Z</time>
      </trkpt>
      <trkpt lat="36.523710" lon="-118.769940">
        <ele>910.608</ele>
        <time>2018-12-28T04:09:00Z</time>
      </trkpt>
      <trkpt lat="36.523700" lon="-118.769940">
        <ele>910.439</ele>
        <time>2018-12-28T04:09:20Z</time>
      </trkpt>
      <trkpt lat="36.523680" lon="-118.769940">
        <ele>910.037</ele>
        <time>2018-12-28T04:09:40Z</time>
      </trkpt>
      <trkpt lat="36.523660" lon="-118.769940">
        <ele>909.612</ele>
        <time>2018-12-28T04:10:00Z</time>
      </trkpt>
      <trkpt lat="36.523640" lon="-118.769950">
        <ele>909.112</ele>
        <time>2018-12-28T04:10:20Z</time>
      </trkpt>
      <trkpt lat="36.523620" lon="-118.769960">
        <ele>908.646</ele>
        <time>2018-12-28T04:10:40Z</time>
      </trkpt>
      <trkpt lat="36.523600" lon="-118.769980">
        <ele>908.039</ele>
        <time>2018-12-28T04:11:00Z</time>
      </trkpt>
      <trkpt lat="36.523580" lon="-118.770010">
        <ele>907.430</ele>
        <time>2018-12-28T04:11:20Z</time>
      </trkpt>
      <trkpt lat="36.523570" lon="-118.770030">
        <ele>907.153</ele>
        <time>2018-12-28T04:11:40Z</time>
      </trkpt>
      <trkpt lat="36.523560" lon="-118.770080">
        <ele>906.663</ele>
        <time>2018-12-28T04:12:00Z</time>
      </trkpt>
      <trkpt lat="36.523560" lon="-118.770120">
        <ele>906.344</ele>
        <time>2018-12-28T04:12:20Z</time>
      </trkpt>
      <trkpt lat="36.523570" lon="-118.770150">
        <ele>906.118</ele>
        <time>2018-12-28T04:12:40Z</time>
      </trkpt>
      <trkpt lat="36.523590" lon="-118.770180">
        <ele>905.908</ele>
        <time>2018-12-28T04:13:00Z</time>
      </trkpt>
      <trkpt lat="36.523610" lon="-118.770220">
        <ele>905.559</ele>
        <time>2018-12-28T04:13:20Z</time>
      </trkpt>
      <trkpt lat="36.523640" lon="-118.770240">
        <ele>905.647</ele>
        <time>2018-12-28T04:13:40Z</time>
      </trkpt>
      <trkpt lat="36.523690" lon="-118.770280">
        <ele>905.932</ele>
        <time>2018-12-28T04:14:00Z</time>
      </trkpt>
      <trkpt lat="36.523740" lon="-118.770310">
        <ele>906.312</ele>
        <time>2018-12-28T04:14:20Z</time>
      </trkpt>
      <trkpt lat="36.523770" lon="-118.770330">
        <ele>906.556</ele>
        <time>2018-12-28T04:14:40Z</time>
      </trkpt>
      <trkpt lat="36.523810" lon="-118.770360">
        <ele>906.729</ele>
        <time>2018-12-28T04:15:00Z</time>
      </trkpt>
      <trkpt lat="36.523860" lon="-118.770410">
        <ele>906.610</ele>
        <time>2018-12-28T04:15:20Z</time>
      </trkpt>
      <trkpt lat="36.523890" lon="-118.770440">
        <ele>906.383</ele>
        <time>2018-12-28T04:15:40Z</time>
      </trkpt>
      <trkpt lat="36.523920" lon="-118.770470">
        <ele>906.017</ele>
        <time>2018-12-28T04:16:00Z</time>
      </trkpt>
      <trkpt lat="36.523940" lon="-118.770500">
        <ele>905.587</ele>
        <time>2018-12-28T04:16:20Z</time>
      </trkpt>
      <trkpt lat="36.523980" lon="-118.770550">
        <ele>905.015</ele>
        <time>2018-12-28T04:16:40Z</time>
      </trkpt>
      <trkpt lat="36.524030" lon="-118.770600">
        <ele>904.708</ele>
        <time>2018-12-28T04:17:00Z</time>
      </trkpt>
      <trkpt lat="36.524100" lon="-118.770680">
        <ele>903.644</ele>
        <time>2018-12-28T04:17:20Z</time>
      </trkpt>
      <trkpt lat="36.524160" lon="-118.770740">
        <ele>902.362</ele>
        <time>2018-12-28T04:17:40Z</time>
      </trkpt>
      <trkpt lat="36.524190" lon="-118.770770">
        <ele>901.667</ele>
        <time>2018-12-28T04:18:00Z</time>
      </trkpt>
      <trkpt lat="36.524230" lon="-118.770790">
        <ele>901.317</ele>
        <time>2018-12-28T04:18:20Z</time>
      </trkpt>
      <trkpt lat="36.524300" lon="-118.770820">
        <ele>900.961</ele>
        <time>2018-12-28T04:18:40Z</time>
      </trkpt>
      <trkpt lat="36.524350" lon="-118.770850">
        <ele>900.134</ele>
        <time>2018-12-28T04:19:00Z</time>
      </trkpt>
      <trkpt lat="36.524400" lon="-118.770870">
        <ele>899.745</ele>
        <time>2018-12-28T04:19:20Z</time>
      </trkpt>
      <trkpt lat="36.524450" lon="-118.770900">
        <ele>899.038</ele>
        <time>2018-12-28T04:19:40Z</time>
      </trkpt>
      <trkpt lat="36.524510" lon="-118.770930">
        <ele>898.775</ele>
        <time>2018-12-28T04:20:00Z</time>
      </trkpt>
      <trkpt lat="36.524550" lon="-118.770950">
        <ele>898.528</ele>
        <time>2018-12-28T04:20:20Z</time>
      </trkpt>
      <trkpt lat="36.524600" lon="-118.770980">
        <ele>898.620</ele>
        <time>2018-12-28T04:20:40Z</time>
      </trkpt>
      <trkpt lat="36.524640" lon="-118.771010">
        <ele>898.908</ele>
        <time>2018-12-28T04:21:00Z</time>
      </trkpt>
      <trkpt lat="36.524670" lon="-118.771040">
        <ele>898.940</ele>
        <time>2018-12-28T04:21:20Z</time>
      </trkpt>
      <trkpt lat="36.524700" lon="-118.771080">
        <ele>898.628</ele>
        <time>2018-12-28T04:21:40Z</time>
      </trkpt>
      <trkpt lat="36.524760" lon="-118.771140">
        <ele>898.573</ele>
        <time>2018-12-28T04:22:00Z</time>
      </trkpt>
      <trkpt lat="36.524850" lon="-118.771220">
        <ele>898.753</ele>
        <time>2018-12-28T04:22:20Z</time>
      </trkpt>
      <trkpt lat="36.524960" lon="-118.771310">
        <ele>899.387</ele>
        <time>2018-12-28T04:22:40Z</time>
      </trkpt>
      <trkpt lat="36.525130" lon="-118.771460">
        <ele>899.470</ele>
        <time>2018-12-28T04:23:00Z</time>
      </trkpt>
      <trkpt lat="36.525200" lon="-118.771520">
        <ele>899.321</ele>
        <time>2018-12-28T04:23:20Z</time>
      </trkpt>
      <trkpt lat="36.525240" lon="-118.771550">
        <ele>899.214</ele>
        <time>2018-12-28T04:23:40Z</time>
      </trkpt>
      <trkpt lat="36.525290" lon="-118.771600">
        <ele>898.352</ele>
        <time>2018-12-28T04:24:00Z</time>
      </trkpt>
      <trkpt lat="36.525340" lon="-118.771650">
        <ele>897.053</ele>
        <time>2018-12-28T04:24:20Z</time>
      </trkpt>
      <trkpt lat="36.525370" lon="-118.771690">
        <ele>895.508</ele>
        <time>2018-12-28T04:24:40Z</time>
      </trkpt>
      <trkpt lat="36.525400" lon="-118.771730">
        <ele>893.908</ele>
        <time>2018-12-28T04:25:00Z</time>
      </trkpt>
      <trkpt lat="36.525450" lon="-118.771830">
        <ele>891.038</ele>
        <time>2018-12-28T04:25:20Z</time>
      </trkpt>
      <trkpt lat="36.525480" lon="-118.771890">
        <ele>891.386</ele>
        <time>2018-12-28T04:25:40Z</time>
      </trkpt>
      <trkpt lat="36.525500" lon="-118.771940">
        <ele>891.461</ele>
        <time>2018-12-28T04:26:00Z</time>
      </trkpt>
      <trkpt lat="36.525510" lon="-118.771990">
        <ele>891.121</ele>
        <time>2018-12-28T04:26:20Z</time>
      </trkpt>
      <trkpt lat="36.525520" lon="-118.772040">
        <ele>890.985</ele>
        <time>2018-12-28T04:26:40Z</time>
      </trkpt>
      <trkpt lat="36.525520" lon="-118.772070">
        <ele>890.618</ele>
        <time>2018-12-28T04:27:00Z</time>
      </trkpt>
      <trkpt lat="36.525510" lon="-118.772100">
        <ele>890.329</ele>
        <time>2018-12-28T04:27:20Z</time>
      </trkpt>
      <trkpt lat="36.525510" lon="-118.772140">
        <ele>890.742</ele>
        <time>2018-12-28T04:27:40Z</time>
      </trkpt>
      <trkpt lat="36.525490" lon="-118.772180">
        <ele>890.686</ele>
        <time>2018-12-28T04:28:00Z</time>
      </trkpt>
      <trkpt lat="36.525480" lon="-118.772210">
        <ele>890.760</ele>
        <time>2018-12-28T04:28:20Z</time>
      </trkpt>
      <trkpt lat="36.525450" lon="-118.772250">
        <ele>890.526</ele>
        <time>2018-12-28T04:28:40Z</time>
      </trkpt>
      <trkpt lat="36.525440" lon="-118.772270">
        <ele>890.508</ele>
        <time>2018-12-28T04:29:00Z</time>
      </trkpt>
      <trkpt lat="36.525420" lon="-118.772290">
        <ele>890.451</ele>
        <time>2018-12-28T04:29:20Z</time>
      </trkpt>
      <trkpt lat="36.525390" lon="-118.772310">
        <ele>890.769</ele>
        <time>2018-12-28T04:29:40Z</time>
      </trkpt>
      <trkpt lat="36.525360" lon="-118.772330">
        <ele>891.114</ele>
        <time>2018-12-28T04:30:00Z</time>
      </trkpt>
      <trkpt lat="36.525330" lon="-118.772340">
        <ele>891.514</ele>
        <time>2018-12-28T04:30:20Z</time>
      </trkpt>
      <trkpt lat="36.525290" lon="-118.772350">
        <ele>891.998</ele>
        <time>2018-12-28T04:30:40Z</time>
      </trkpt>
      <trkpt lat="36.525270" lon="-118.772350">
        <ele>892.181</ele>
        <time>2018-12-28T04:31:00Z</time>
      </trkpt>
      <trkpt lat="36.525230" lon="-118.772350">
        <ele>892.422</ele>
        <time>2018-12-28T04:31:20Z</time>
      </trkpt>
      <trkpt lat="36.525180" lon="-118.772350">
        <ele>892.775</ele>
        <time>2018-12-28T04:31:40Z</time>
      </trkpt>
      <trkpt lat="36.525130" lon="-118.772350">
        <ele>893.073</ele>
        <time>2018-12-28T04:32:00Z</time>
      </trkpt>
      <trkpt lat="36.525040" lon="-118.772340">
        <ele>892.785</ele>
        <time>2018-12-28T04:32:20Z</time>
      </trkpt>
      <trkpt lat="36.524940" lon="-118.772320">
        <ele>892.113</ele>
        <time>2018-12-28T04:32:40Z</time>
      </trkpt>
      <trkpt lat="36.524860" lon="-118.772310">
        <ele>891.708</ele>
        <time>2018-12-28T04:33:00Z</time>
      </trkpt>
      <trkpt lat="36.524790" lon="-118.772300">
        <ele>891.930</ele>
        <time>2018-12-28T04:33:20Z</time>
      </trkpt>
      <trkpt lat="36.524750" lon="-118.772280">
        <ele>891.418</ele>
        <time>2018-12-28T04:33:40Z</time>
      </trkpt>
      <trkpt lat="36.524700" lon="-118.772260">
        <ele>891.033</ele>
        <time>2018-12-28T04:34:00Z</time>
      </trkpt>
      <trkpt lat="36.524650" lon="-118.772240">
        <ele>890.623</ele>
        <time>2018-12-28T04:34:20Z</time>
      </trkpt>
      <trkpt lat="36.524610" lon="-118.772210">
        <ele>889.777</ele>
        <time>2018-12-28T04:34:40Z</time>
      </trkpt>
      <trkpt lat="36.524570" lon="-118.772180">
        <ele>888.870</ele>
        <time>2018-12-28T04:35:00Z</time>
      </trkpt>
      <trkpt lat="36.524530" lon="-118.772150">
        <ele>887.911</ele>
        <time>2018-12-28T04:35:20Z</time>
      </trkpt>
      <trkpt lat="36.524500" lon="-118.772120">
        <ele>887.084</ele>
        <time>2018-12-28T04:35:40Z</time>
      </trkpt>
      <trkpt lat="36.524460" lon="-118.772090">
        <ele>886.212</ele>
        <time>2018-12-28T04:36:00Z</time>
      </trkpt>
      <trkpt lat="36.524420" lon="-118.772070">
        <ele>885.932</ele>
        <time>2018-12-28T04:36:20Z</time>
      </trkpt>
      <trkpt lat="36.524390" lon="-118.772050">
        <ele>885.505</ele>
        <time>2018-12-28T04:36:40Z</time>
      </trkpt>
      <trkpt lat="36.524350" lon="-118.772040">
        <ele>885.608</ele>
        <time>2018-12-28T04:37:00Z</time>
      </trkpt>
      <trkpt lat="36.524320" lon="-118.772040">
        <ele>885.884</ele>
        <time>2018-12-28T04:37:20Z</time>
      </trkpt>
      <trkpt lat="36.524270" lon="-118.772040">
        <ele>885.722</ele>
        <time>2018-12-28T04:37:40Z</time>
      </trkpt>
      <trkpt lat="36.524170" lon="-118.772060">
        <ele>885.717</ele>
        <time>2018-12-28T04:38:00Z</time>
      </trkpt>
      <trkpt lat="36.523870" lon="-118.772160">
        <ele>882.987</ele>
        <time>2018-12-28T04:38:20Z</time>
      </trkpt>
      <trkpt lat="36.523670" lon="-118.772200">
        <ele>879.831</ele>
        <time>2018-12-28T04:38:40Z</time>
      </trkpt>
      <trkpt lat="36.523620" lon="-118.772210">
        <ele>879.974</ele>
        <time>2018-12-28T04:39:00Z</time>
      </trkpt>
      <trkpt lat="36.523570" lon="-118.772220">
        <ele>880.055</ele>
        <time>2018-12-28T04:39:20Z</time>
      </trkpt>
      <trkpt lat="36.523510" lon="-118.772210">
        <ele>879.158</ele>
        <time>2018-12-28T04:39:40Z</time>
      </trkpt>
      <trkpt lat="36.523460" lon="-118.772200">
        <ele>878.573</ele>
        <time>2018-12-28T04:40:00Z</time>
      </trkpt>
      <trkpt lat="36.523400" lon="-118.772190">
        <ele>878.585</ele>
        <time>2018-12-28T04:40:20Z</time>
      </trkpt>
      <trkpt lat="36.523310" lon="-118.772140">
        <ele>877.013</ele>
        <time>2018-12-28T04:40:40Z</time>
      </trkpt>
      <trkpt lat="36.523120" lon="-118.772040">
        <ele>873.708</ele>
        <time>2018-12-28T04:41:00Z</time>
      </trkpt>
      <trkpt lat="36.523080" lon="-118.772020">
        <ele>873.060</ele>
        <time>2018-12-28T04:41:20Z</time>
      </trkpt>
      <trkpt lat="36.523030" lon="-118.772010">
        <ele>872.738</ele>
        <time>2018-12-28T04:41:40Z</time>
      </trkpt>
      <trkpt lat="36.523000" lon="-118.772000">
        <ele>872.333</ele>
        <time>2018-12-28T04:42:00Z</time>
      </trkpt>
      <trkpt lat="36.522970" lon="-118.772000">
        <ele>872.393</ele>
        <time>2018-12-28T04:42:20Z</time>
      </trkpt>
      <trkpt lat="36.522920" lon="-118.772000">
        <ele>872.427</ele>
        <time>2018-12-28T04:42:40Z</time>
      </trkpt>
      <trkpt lat="36.522860" lon="-118.772010">
        <ele>871.740</ele>
        <time>2018-12-28T04:43:00Z</time>
      </trkpt>
      <trkpt lat="36.522780" lon="-118.772040">
        <ele>871.271</ele>
        <time>2018-12-28T04:43:20Z</time>
      </trkpt>
      <trkpt lat="36.522600" lon="-118.772110">
        <ele>869.344</ele>
        <time>2018-12-28T04:43:40Z</time>
      </trkpt>
      <trkpt lat="36.522400" lon="-118.772190">
        <ele>866.813</ele>
        <time>2018-12-28T04:44:00Z</time>
      </trkpt>
      <trkpt lat="36.522190" lon="-118.772280">
        <ele>865.443</ele>
        <time>2018-12-28T04:44:20Z</time>
      </trkpt>
      <trkpt lat="36.522140" lon="-118.772310">
        <ele>865.307</ele>
        <time>2018-12-28T04:44:40Z</time>
      </trkpt>
      <trkpt lat="36.522090" lon="-118.772330">
        <ele>864.908</ele>
        <time>2018-12-28T04:45:00Z</time>
      </trkpt>
      <trkpt lat="36.522050" lon="-118.772350">
        <ele>864.814</ele>
        <time>2018-12-28T04:45:20Z</time>
      </trkpt>
      <trkpt lat="36.522040" lon="-118.772350">
        <ele>864.712</ele>
        <time>2018-12-28T04:45:40Z</time>
      </trkpt>
      <trkpt lat="36.522010" lon="-118.772350">
        <ele>864.487</ele>
        <time>2018-12-28T04:46:00Z</time>
      </trkpt>
      <trkpt lat="36.521980" lon="-118.772360">
        <ele>864.317</ele>
        <time>2018-12-28T04:46:20Z</time>
      </trkpt>
      <trkpt lat="36.521950" lon="-118.772360">
        <ele>864.061</ele>
        <time>2018-12-28T04:46:40Z</time>
      </trkpt>
      <trkpt lat="36.521930" lon="-118.772360">
        <ele>863.884</ele>
        <time>2018-12-28T04:47:00Z</time>
      </trkpt>
      <trkpt lat="36.521890" lon="-118.772350">
        <ele>863.355</ele>
        <time>2018-12-28T04:47:20Z</time>
      </trkpt>
      <trkpt lat="36.521870" lon="-118.772340">
        <ele>863.058</ele>
        <time>2018-12-28T04:47:40Z</time>
      </trkpt>
      <trkpt lat="36.521850" lon="-118.772320">
        <ele>862.552</ele>
        <time>2018-12-28T04:48:00Z</time>
      </trkpt>
      <trkpt lat="36.521840" lon="-118.772310">
        <ele>862.253</ele>
        <time>2018-12-28T04:48:20Z</time>
      </trkpt>
      <trkpt lat="36.521830" lon="-118.772280">
        <ele>861.708</ele>
        <time>2018-12-28T04:48:40Z</time>
      </trkpt>
      <trkpt lat="36.521820" lon="-118.772250">
        <ele>861.108</ele>
        <time>2018-12-28T04:49:00Z</time>
      </trkpt>
      <trkpt lat="36.521820" lon="-118.772230">
        <ele>860.888</ele>
        <time>2018-12-28T04:49:20Z</time>
      </trkpt>
      <trkpt lat="36.521820" lon="-118.772190">
        <ele>860.296</ele>
        <time>2018-12-28T04:49:40Z</time>
      </trkpt>
      <trkpt lat="36.521820" lon="-118.772150">
        <ele>859.551</ele>
        <time>2018-12-28T04:50:00Z</time>
      </trkpt>
      <trkpt lat="36.521840" lon="-118.772110">
        <ele>859.161</ele>
        <time>2018-12-28T04:50:20Z</time>
      </trkpt>
      <trkpt lat="36.521870" lon="-118.772080">
        <ele>859.085</ele>
        <time>2018-12-28T04:50:40Z</time>
      </trkpt>
      <trkpt lat="36.521900" lon="-118.772040">
        <ele>858.948</ele>
        <time>2018-12-28T04:51:00Z</time>
      </trkpt>
      <trkpt lat="36.522060" lon="-118.771920">
        <ele>859.269</ele>
        <time>2018-12-28T04:51:20Z</time>
      </trkpt>
      <trkpt lat="36.522240" lon="-118.771800">
        <ele>858.732</ele>
        <time>2018-12-28T04:51:40Z</time>
      </trkpt>
      <trkpt lat="36.522350" lon="-118.771730">
        <ele>857.916</ele>
        <time>2018-12-28T04:52:00Z</time>
      </trkpt>
      <trkpt lat="36.522420" lon="-118.771700">
        <ele>858.276</ele>
        <time>2018-12-28T04:52:20Z</time>
      </trkpt>
      <trkpt lat="36.522500" lon="-118.771680">
        <ele>858.913</ele>
        <time>2018-12-28T04:52:40Z</time>
      </trkpt>
      <trkpt lat="36.522580" lon="-118.771670">
        <ele>859.808</ele>
        <time>2018-12-28T04:53:00Z</time>
      </trkpt>
      <trkpt lat="36.522710" lon="-118.771650">
        <ele>860.494</ele>
        <time>2018-12-28T04:53:20Z</time>
      </trkpt>
      <trkpt lat="36.522810" lon="-118.771630">
        <ele>860.222</ele>
        <time>2018-12-28T04:53:40Z</time>
      </trkpt>
      <trkpt lat="36.522880" lon="-118.771600">
        <ele>859.797</ele>
        <time>2018-12-28T04:54:00Z</time>
      </trkpt>
      <trkpt lat="36.522930" lon="-118.771570">
        <ele>858.957</ele>
        <time>2018-12-28T04:54:20Z</time>
      </trkpt>
      <trkpt lat="36.522950" lon="-118.771550">
        <ele>858.211</ele>
        <time>2018-12-28T04:54:40Z</time>
      </trkpt>
      <trkpt lat="36.522970" lon="-118.771530">
        <ele>857.524</ele>
        <time>2018-12-28T04:55:00Z</time>
      </trkpt>
      <trkpt lat="36.522990" lon="-118.771490">
        <ele>856.475</ele>
        <time>2018-12-28T04:55:20Z</time>
      </trkpt>
      <trkpt lat="36.523010" lon="-118.771470">
        <ele>856.028</ele>
        <time>2018-12-28T04:55:40Z</time>
      </trkpt>
      <trkpt lat="36.523020" lon="-118.771440">
        <ele>855.537</ele>
        <time>2018-12-28T04:56:00Z</time>
      </trkpt>
      <trkpt lat="36.523030" lon="-118.771420">
        <ele>855.149</ele>
        <time>2018-12-28T04:56:20Z</time>
      </trkpt>
      <trkpt lat="36.523030" lon="-118.771380">
        <ele>854.513</ele>
        <time>2018-12-28T04:56:40Z</time>
      </trkpt>
      <trkpt lat="36.523020" lon="-118.771350">
        <ele>853.908</ele>
        <time>2018-12-28T04:57:00Z</time>
      </trkpt>
      <trkpt lat="36.523010" lon="-118.771320">
        <ele>853.346</ele>
        <time>2018-12-28T04:57:20Z</time>
      </trkpt>
      <trkpt lat="36.523000" lon="-118.771300">
        <ele>852.864</ele>
        <time>2018-12-28T04:57:40Z</time>
      </trkpt>
      <trkpt lat="36.522980" lon="-118.771280">
        <ele>852.049</ele>
        <time>2018-12-28T04:58:00Z</time>
      </trkpt>
      <trkpt lat="36.522960" lon="-118.771260">
        <ele>851.279</ele>
        <time>2018-12-28T04:58:20Z</time>
      </trkpt>
      <trkpt lat="36.522950" lon="-118.771250">
        <ele>850.773</ele>
        <time>2018-12-28T04:58:40Z</time>
      </trkpt>
      <trkpt lat="36.522930" lon="-118.771250">
        <ele>850.316</ele>
        <time>2018-12-28T04:59:00Z</time>
      </trkpt>
      <trkpt lat="36.522910" lon="-118.771240">
        <ele>850.447</ele>
        <time>2018-12-28T04:59:20Z</time>
      </trkpt>
      <trkpt lat="36.522870" lon="-118.771240">
        <ele>850.120</ele>
        <time>2018-12-28T04:59:40Z</time>
      </trkpt>
      <trkpt lat="36.522850" lon="-118.771250">
        <ele>849.638</ele>
        <time>2018-12-28T05:00:00Z</time>
      </trkpt>
      <trkpt lat="36.522800" lon="-118.771270">
        <ele>849.870</ele>
        <time>2018-12-28T05:00:20Z</time>
      </trkpt>
      <trkpt lat="36.522750" lon="-118.771300">
        <ele>850.417</ele>
        <time>2018-12-28T05:00:40Z</time>
      </trkpt>
      <trkpt lat="36.522680" lon="-118.771350">
        <ele>851.408</ele>
        <time>2018-12-28T05:01:00Z</time>
      </trkpt>
      <trkpt lat="36.522590" lon="-118.771420">
        <ele>852.966</ele>
        <time>2018-12-28T05:01:20Z</time>
      </trkpt>
      <trkpt lat="36.522530" lon="-118.771440">
        <ele>852.914</ele>
        <time>2018-12-28T05:01:40Z</time>
      </trkpt>
      <trkpt lat="36.522450" lon="-118.771470">
        <ele>853.099</ele>
        <time>2018-12-28T05:02:00Z</time>
      </trkpt>
      <trkpt lat="36.522390" lon="-118.771470">
        <ele>852.499</ele>
        <time>2018-12-28T05:02:20Z</time>
      </trkpt>
      <trkpt lat="36.522330" lon="-118.771470">
        <ele>852.133</ele>
        <time>2018-12-28T05:02:40Z</time>
      </trkpt>
      <trkpt lat="36.522260" lon="-118.771460">
        <ele>851.756</ele>
        <time>2018-12-28T05:03:00Z</time>
      </trkpt>
      <trkpt lat="36.522200" lon="-118.771430">
        <ele>850.817</ele>
        <time>2018-12-28T05:03:20Z</time>
      </trkpt>
      <trkpt lat="36.522130" lon="-118.771390">
        <ele>849.810</ele>
        <time>2018-12-28T05:03:40Z</time>
      </trkpt>
      <trkpt lat="36.522070" lon="-118.771360">
        <ele>848.966</ele>
        <time>2018-12-28T05:04:00Z</time>
      </trkpt>
      <trkpt lat="36.521960" lon="-118.771290">
        <ele>846.229</ele>
        <time>2018-12-28T05:04:20Z</time>
      </trkpt>
      <trkpt lat="36.521900" lon="-118.771260">
        <ele>845.121</ele>
        <time>2018-12-28T05:04:40Z</time>
      </trkpt>
      <trkpt lat="36.521860" lon="-118.771250">
        <ele>844.708</ele>
        <time>2018-12-28T05:05:00Z</time>
      </trkpt>
      <trkpt lat="36.521820" lon="-118.771250">
        <ele>844.489</ele>
        <time>2018-12-28T05:05:20Z</time>
      </trkpt>
      <trkpt lat="36.521780" lon="-118.771250">
        <ele>843.897</ele>
        <time>2018-12-28T05:05:40Z</time>
      </trkpt>
      <trkpt lat="36.521720" lon="-118.771270">
        <ele>842.992</ele>
        <time>2018-12-28T05:06:00Z</time>
      </trkpt>
      <trkpt lat="36.521670" lon="-118.771300">
        <ele>842.292</ele>
        <time>2018-12-28T05:06:20Z</time>
      </trkpt>
      <trkpt lat="36.521640" lon="-118.771330">
        <ele>842.026</ele>
        <time>2018-12-28T05:06:40Z</time>
      </trkpt>
      <trkpt lat="36.521600" lon="-118.771380">
        <ele>841.659</ele>
        <time>2018-12-28T05:07:00Z</time>
      </trkpt>
      <trkpt lat="36.521560" lon="-118.771420">
        <ele>841.040</ele>
        <time>2018-12-28T05:07:20Z</time>
      </trkpt>
      <trkpt lat="36.521500" lon="-118.771500">
        <ele>840.433</ele>
        <time>2018-12-28T05:07:40Z</time>
      </trkpt>
      <trkpt lat="36.521470" lon="-118.771540">
        <ele>840.239</ele>
        <time>2018-12-28T05:08:00Z</time>
      </trkpt>
      <trkpt lat="36.521410" lon="-118.771630">
        <ele>839.801</ele>
        <time>2018-12-28T05:08:20Z</time>
      </trkpt>
      <trkpt lat="36.521390" lon="-118.771690">
        <ele>839.821</ele>
        <time>2018-12-28T05:08:40Z</time>
      </trkpt>
      <trkpt lat="36.521370" lon="-118.771740">
        <ele>839.708</ele>
        <time>2018-12-28T05:09:00Z</time>
      </trkpt>
      <trkpt lat="36.521370" lon="-118.771770">
        <ele>840.066</ele>
        <time>2018-12-28T05:09:20Z</time>
      </trkpt>
      <trkpt lat="36.521360" lon="-118.771790">
        <ele>839.924</ele>
        <time>2018-12-28T05:09:40Z</time>
      </trkpt>
      <trkpt lat="36.521350" lon="-118.771830">
        <ele>840.019</ele>
        <time>2018-12-28T05:10:00Z</time>
      </trkpt>
      <trkpt lat="36.521350" lon="-118.771870">
        <ele>840.559</ele>
        <time>2018-12-28T05:10:20Z</time>
      </trkpt>
      <trkpt lat="36.521340" lon="-118.771960">
        <ele>841.263</ele>
        <time>2018-12-28T05:10:40Z</time>
      </trkpt>
      <trkpt lat="36.521330" lon="-118.772040">
        <ele>841.656</ele>
        <time>2018-12-28T05:11:00Z</time>
      </trkpt>
      <trkpt lat="36.521330" lon="-118.772080">
        <ele>842.057</ele>
        <time>2018-12-28T05:11:20Z</time>
      </trkpt>
      <trkpt lat="36.521320" lon="-118.772100">
        <ele>841.860</ele>
        <time>2018-12-28T05:11:40Z</time>
      </trkpt>
      <trkpt lat="36.521320" lon="-118.772130">
        <ele>842.136</ele>
        <time>2018-12-28T05:12:00Z</time>
      </trkpt>
      <trkpt lat="36.521300" lon="-118.772160">
        <ele>841.517</ele>
        <time>2018-12-28T05:12:20Z</time>
      </trkpt>
      <trkpt lat="36.521290" lon="-118.772180">
        <ele>841.218</ele>
        <time>2018-12-28T05:12:40Z</time>
      </trkpt>
      <trkpt lat="36.521280" lon="-118.772200">
        <ele>840.908</ele>
        <time>2018-12-28T05:13:00Z</time>
      </trkpt>
      <trkpt lat="36.521260" lon="-118.772210">
        <ele>840.096</ele>
        <time>2018-12-28T05:13:20Z</time>
      </trkpt>
      <trkpt lat="36.521250" lon="-118.772220">
        <ele>839.694</ele>
        <time>2018-12-28T05:13:40Z</time>
      </trkpt>
      <trkpt lat="36.521230" lon="-118.772230">
        <ele>839.189</ele>
        <time>2018-12-28T05:14:00Z</time>
      </trkpt>
      <trkpt lat="36.521210" lon="-118.772240">
        <ele>838.789</ele>
        <time>2018-12-28T05:14:20Z</time>
      </trkpt>
      <trkpt lat="36.521190" lon="-118.772240">
        <ele>838.243</ele>
        <time>2018-12-28T05:14:40Z</time>
      </trkpt>
      <trkpt lat="36.521170" lon="-118.772240">
        <ele>837.666</ele>
        <time>2018-12-28T05:15:00Z</time>
      </trkpt>
      <trkpt lat="36.521150" lon="-118.772230">
        <ele>837.077</ele>
        <time>2018-12-28T05:15:20Z</time>
      </trkpt>
      <trkpt lat="36.521140" lon="-118.772230">
        <ele>836.750</ele>
        <time>2018-12-28T05:15:40Z</time>
      </trkpt>
      <trkpt lat="36.521120" lon="-118.772220">
        <ele>836.144</ele>
        <time>2018-12-28T05:16:00Z</time>
      </trkpt>
      <trkpt lat="36.521100" lon="-118.772190">
        <ele>835.105</ele>
        <time>2018-12-28T05:16:20Z</time>
      </trkpt>
      <trkpt lat="36.521080" lon="-118.772160">
        <ele>834.115</ele>
        <time>2018-12-28T05:16:40Z</time>
      </trkpt>
      <trkpt lat="36.521070" lon="-118.772120">
        <ele>833.208</ele>
        <time>2018-12-28T05:17:00Z</time>
      </trkpt>
      <trkpt lat="36.521070" lon="-118.772080">
        <ele>832.737</ele>
        <time>2018-12-28T05:17:20Z</time>
      </trkpt>
      <trkpt lat="36.521070" lon="-118.772040">
        <ele>832.665</ele>
        <time>2018-12-28T05:17:40Z</time>
      </trkpt>
      <trkpt lat="36.521080" lon="-118.771980">
        <ele>832.820</ele>
        <time>2018-12-28T05:18:00Z</time>
      </trkpt>
      <trkpt lat="36.521100" lon="-118.771890">
        <ele>833.290</ele>
        <time>2018-12-28T05:18:20Z</time>
      </trkpt>
      <trkpt lat="36.521110" lon="-118.771820">
        <ele>833.384</ele>
        <time>2018-12-28T05:18:40Z</time>
      </trkpt>
      <trkpt lat="36.521120" lon="-118.771790">
        <ele>833.537</ele>
        <time>2018-12-28T05:19:00Z</time>
      </trkpt>
      <trkpt lat="36.521120" lon="-118.771760">
        <ele>833.538</ele>
        <time>2018-12-28T05:19:20Z</time>
      </trkpt>
      <trkpt lat="36.521120" lon="-118.771720">
        <ele>833.461</ele>
        <time>2018-12-28T05:19:40Z</time>
      </trkpt>
      <trkpt lat="36.521120" lon="-118.771680">
        <ele>833.422</ele>
        <time>2018-12-28T05:20:00Z</time>
      </trkpt>
      <trkpt lat="36.521110" lon="-118.771640">
        <ele>833.162</ele>
        <time>2018-12-28T05:20:20Z</time>
      </trkpt>
      <trkpt lat="36.521100" lon="-118.771610">
        <ele>832.908</ele>
        <time>2018-12-28T05:20:40Z</time>
      </trkpt>
      <trkpt lat="36.521090" lon="-118.771570">
        <ele>832.708</ele>
        <time>2018-12-28T05:21:00Z</time>
      </trkpt>
      <trkpt lat="36.521070" lon="-118.771540">
        <ele>832.375</ele>
        <time>2018-12-28T05:21:20Z</time>
      </trkpt>
      <trkpt lat="36.521050" lon="-118.771510">
        <ele>831.913</ele>
        <time>2018-12-28T05:21:40Z</time>
      </trkpt>
      <trkpt lat="36.521020" lon="-118.771470">
        <ele>831.458</ele>
        <time>2018-12-28T05:22:00Z</time>
      </trkpt>
      <trkpt lat="36.520990" lon="-118.771440">
        <ele>830.938</ele>
        <time>2018-12-28T05:22:20Z</time>
      </trkpt>
      <trkpt lat="36.520910" lon="-118.771390">
        <ele>829.632</ele>
        <time>2018-12-28T05:22:40Z</time>
      </trkpt>
      <trkpt lat="36.520860" lon="-118.771360">
        <ele>828.645</ele>
        <time>2018-12-28T05:23:00Z</time>
      </trkpt>
      <trkpt lat="36.520820" lon="-118.771350">
        <ele>827.966</ele>
        <time>2018-12-28T05:23:20Z</time>
      </trkpt>
      <trkpt lat="36.520690" lon="-118.771320">
        <ele>825.249</ele>
        <time>2018-12-28T05:23:40Z</time>
      </trkpt>
      <trkpt lat="36.520600" lon="-118.771310">
        <ele>824.168</ele>
        <time>2018-12-28T05:24:00Z</time>
      </trkpt>
      <trkpt lat="36.520440" lon="-118.771280">
        <ele>822.142</ele>
        <time>2018-12-28T05:24:20Z</time>
      </trkpt>
      <trkpt lat="36.520400" lon="-118.771270">
        <ele>821.726</ele>
        <time>2018-12-28T05:24:40Z</time>
      </trkpt>
      <trkpt lat="36.520360" lon="-118.771270">
        <ele>821.508</ele>
        <time>2018-12-28T05:25:00Z</time>
      </trkpt>
      <trkpt lat="36.520330" lon="-118.771280">
        <ele>821.329</ele>
        <time>2018-12-28T05:25:20Z</time>
      </trkpt>
      <trkpt lat="36.520300" lon="-118.771290">
        <ele>821.187</ele>
        <time>2018-12-28T05:25:40Z</time>
      </trkpt>
      <trkpt lat="36.520270" lon="-118.771300">
        <ele>821.032</ele>
        <time>2018-12-28T05:26:00Z</time>
      </trkpt>
      <trkpt lat="36.520240" lon="-118.771310">
        <ele>820.862</ele>
        <time>2018-12-28T05:26:20Z</time>
      </trkpt>
      <trkpt lat="36.520210" lon="-118.771340">
        <ele>820.656</ele>
        <time>2018-12-28T05:26:40Z</time>
      </trkpt>
      <trkpt lat="36.520170" lon="-118.771370">
        <ele>820.259</ele>
        <time>2018-12-28T05:27:00Z</time>
      </trkpt>
      <trkpt lat="36.520100" lon="-118.771440">
        <ele>819.020</ele>
        <time>2018-12-28T05:27:20Z</time>
      </trkpt>
      <trkpt lat="36.520000" lon="-118.771560">
        <ele>816.853</ele>
        <time>2018-12-28T05:27:40Z</time>
      </trkpt>
      <trkpt lat="36.519970" lon="-118.771590">
        <ele>816.144</ele>
        <time>2018-12-28T05:28:00Z</time>
      </trkpt>
      <trkpt lat="36.519890" lon="-118.771690">
        <ele>814.505</ele>
        <time>2018-12-28T05:28:20Z</time>
      </trkpt>
      <trkpt lat="36.519850" lon="-118.771750">
        <ele>813.815</ele>
        <time>2018-12-28T05:28:40Z</time>
      </trkpt>
      <trkpt lat="36.519790" lon="-118.771840">
        <ele>812.708</ele>
        <time>2018-12-28T05:29:00Z</time>
      </trkpt>
      <trkpt lat="36.519750" lon="-118.771950">
        <ele>812.117</ele>
        <time>2018-12-28T05:29:20Z</time>
      </trkpt>
      <trkpt lat="36.519700" lon="-118.772070">
        <ele>811.655</ele>
        <time>2018-12-28T05:29:40Z</time>
      </trkpt>
      <trkpt lat="36.519630" lon="-118.772270">
        <ele>811.480</ele>
        <time>2018-12-28T05:30:00Z</time>
      </trkpt>
      <trkpt lat="36.519560" lon="-118.772510">
        <ele>811.690</ele>
        <time>2018-12-28T05:30:20Z</time>
      </trkpt>
      <trkpt lat="36.519510" lon="-118.772700">
        <ele>811.664</ele>
        <time>2018-12-28T05:30:40Z</time>
      </trkpt>
      <trkpt lat="36.519480" lon="-118.772860">
        <ele>811.577</ele>
        <time>2018-12-28T05:31:00Z</time>
      </trkpt>
      <trkpt lat="36.519460" lon="-118.772960">
        <ele>811.018</ele>
        <time>2018-12-28T05:31:20Z</time>
      </trkpt>
      <trkpt lat="36.519450" lon="-118.773040">
        <ele>810.851</ele>
        <time>2018-12-28T05:31:40Z</time>
      </trkpt>
      <trkpt lat="36.519440" lon="-118.773110">
        <ele>810.545</ele>
        <time>2018-12-28T05:32:00Z</time>
      </trkpt>
      <trkpt lat="36.519450" lon="-118.773180">
        <ele>811.347</ele>
        <time>2018-12-28T05:32:20Z</time>
      </trkpt>
      <trkpt lat="36.519460" lon="-118.773250">
        <ele>811.011</ele>
        <time>2018-12-28T05:32:40Z</time>
      </trkpt>
      <trkpt lat="36.519480" lon="-118.773370">
        <ele>810.308</ele>
        <time>2018-12-28T05:33:00Z</time>
      </trkpt>
      <trkpt lat="36.519520" lon="-118.773550">
        <ele>809.957</ele>
        <time>2018-12-28T05:33:20Z</time>
      </trkpt>
      <trkpt lat="36.519610" lon="-118.774020">
        <ele>808.725</ele>
        <time>2018-12-28T05:33:40Z</time>
      </trkpt>
      <trkpt lat="36.519690" lon="-118.774420">
        <ele>801.050</ele>
        <time>2018-12-28T05:34:00Z</time>
      </trkpt>
      <trkpt lat="36.519730" lon="-118.774630">
        <ele>799.160</ele>
        <time>2018-12-28T05:34:20Z</time>
      </trkpt>
      <trkpt lat="36.519760" lon="-118.774820">
        <ele>797.634</ele>
        <time>2018-12-28T05:34:40Z</time>
      </trkpt>
      <trkpt lat="36.519770" lon="-118.774890">
        <ele>796.677</ele>
        <time>2018-12-28T05:35:00Z</time>
      </trkpt>
      <trkpt lat="36.519780" lon="-118.774980">
        <ele>794.118</ele>
        <time>2018-12-28T05:35:20Z</time>
      </trkpt>
      <trkpt lat="36.519790" lon="-118.775090">
        <ele>790.871</ele>
        <time>2018-12-28T05:35:40Z</time>
      </trkpt>
      <trkpt lat="36.519790" lon="-118.775230">
        <ele>789.053</ele>
        <time>2018-12-28T05:36:00Z</time>
      </trkpt>
      <trkpt lat="36.519790" lon="-118.775290">
        <ele>788.804</ele>
        <time>2018-12-28T05:36:20Z</time>
      </trkpt>
      <trkpt lat="36.519790" lon="-118.775330">
        <ele>788.714</ele>
        <time>2018-12-28T05:36:40Z</time>
      </trkpt>
      <trkpt lat="36.519780" lon="-118.775390">
        <ele>788.208</ele>
        <time>2018-12-28T05:37:00Z</time>
      </trkpt>
      <trkpt lat="36.519770" lon="-118.775460">
        <ele>787.988</ele>
        <time>2018-12-28T05:37:20Z</time>
      </trkpt>
      <trkpt lat="36.519760" lon="-118.775540">
        <ele>787.956</ele>
        <time>2018-12-28T05:37:40Z</time>
      </trkpt>
      <trkpt lat="36.519750" lon="-118.775630">
        <ele>787.861</ele>
        <time>2018-12-28T05:38:00Z</time>
      </trkpt>
      <trkpt lat="36.519740" lon="-118.775730">
        <ele>787.861</ele>
        <time>2018-12-28T05:38:20Z</time>
      </trkpt>
      <trkpt lat="36.519740" lon="-118.775820">
        <ele>788.095</ele>
        <time>2018-12-28T05:38:40Z</time>
      </trkpt>
      <trkpt lat="36.519750" lon="-118.775920">
        <ele>788.668</ele>
        <time>2018-12-28T05:39:00Z</time>
      </trkpt>
      <trkpt lat="36.519750" lon="-118.776080">
        <ele>789.249</ele>
        <time>2018-12-28T05:39:20Z</time>
      </trkpt>
      <trkpt lat="36.519750" lon="-118.776190">
        <ele>789.762</ele>
        <time>2018-12-28T05:39:40Z</time>
      </trkpt>
      <trkpt lat="36.519750" lon="-118.776290">
        <ele>789.865</ele>
        <time>2018-12-28T05:40:00Z</time>
      </trkpt>
      <trkpt lat="36.519760" lon="-118.776410">
        <ele>789.868</ele>
        <time>2018-12-28T05:40:20Z</time>
      </trkpt>
      <trkpt lat="36.519770" lon="-118.776580">
        <ele>789.714</ele>
        <time>2018-12-28T05:40:40Z</time>
      </trkpt>
      <trkpt lat="36.519770" lon="-118.776650">
        <ele>789.708</ele>
        <time>2018-12-28T05:41:00Z</time>
      </trkpt>
      <trkpt lat="36.519760" lon="-118.776740">
        <ele>789.389</ele>
        <time>2018-12-28T05:41:20Z</time>
      </trkpt>
      <trkpt lat="36.519760" lon="-118.776780">
        <ele>789.357</ele>
        <time>2018-12-28T05:41:40Z</time>
      </trkpt>
      <trkpt lat="36.519750" lon="-118.776860">
        <ele>789.172</ele>
        <time>2018-12-28T05:42:00Z</time>
      </trkpt>
      <trkpt lat="36.519730" lon="-118.777010">
        <ele>788.842</ele>
        <time>2018-12-28T05:42:20Z</time>
      </trkpt>
      <trkpt lat="36.519710" lon="-118.777160">
        <ele>788.096</ele>
        <time>2018-12-28T05:42:40Z</time>
      </trkpt>
      <trkpt lat="36.519700" lon="-118.777260">
        <ele>787.499</ele>
        <time>2018-12-28T05:43:00Z</time>
      </trkpt>
      <trkpt lat="36.519690" lon="-118.777380">
        <ele>786.750</ele>
        <time>2018-12-28T05:43:20Z</time>
      </trkpt>
      <trkpt lat="36.519680" lon="-118.777500">
        <ele>786.283</ele>
        <time>2018-12-28T05:43:40Z</time>
      </trkpt>
      <trkpt lat="36.519670" lon="-118.777640">
        <ele>785.817</ele>
        <time>2018-12-28T05:44:00Z</time>
      </trkpt>
      <trkpt lat="36.519670" lon="-118.777720">
        <ele>785.687</ele>
        <time>2018-12-28T05:44:20Z</time>
      </trkpt>
      <trkpt lat="36.519680" lon="-118.777840">
        <ele>785.415</ele>
        <time>2018-12-28T05:44:40Z</time>
      </trkpt>
      <trkpt lat="36.519680" lon="-118.777890">
        <ele>785.308</ele>
        <time>2018-12-28T05:45:00Z</time>
      </trkpt>
      <trkpt lat="36.519690" lon="-118.777950">
        <ele>784.764</ele>
        <time>2018-12-28T05:45:20Z</time>
      </trkpt>
      <trkpt lat="36.519710" lon="-118.778030">
        <ele>783.562</ele>
        <time>2018-12-28T05:45:40Z</time>
      </trkpt>
      <trkpt lat="36.519730" lon="-118.778080">
        <ele>783.117</ele>
        <time>2018-12-28T05:46:00Z</time>
      </trkpt>
      <trkpt lat="36.519750" lon="-118.778110">
        <ele>783.117</ele>
        <time>2018-12-28T05:46:20Z</time>
      </trkpt>
      <trkpt lat="36.519770" lon="-118.778150">
        <ele>783.011</ele>
        <time>2018-12-28T05:46:40Z</time>
      </trkpt>
      <trkpt lat="36.519800" lon="-118.778180">
        <ele>783.424</ele>
        <time>2018-12-28T05:47:00Z</time>
      </trkpt>
      <trkpt lat="36.519840" lon="-118.778220">
        <ele>784.135</ele>
        <time>2018-12-28T05:47:20Z</time>
      </trkpt>
      <trkpt lat="36.519880" lon="-118.778250">
        <ele>784.878</ele>
        <time>2018-12-28T05:47:40Z</time>
      </trkpt>
      <trkpt lat="36.519950" lon="-118.778300">
        <ele>785.844</ele>
        <time>2018-12-28T05:48:00Z</time>
      </trkpt>
      <trkpt lat="36.520050" lon="-118.778380">
        <ele>786.405</ele>
        <time>2018-12-28T05:48:20Z</time>
      </trkpt>
      <trkpt lat="36.520100" lon="-118.778410">
        <ele>786.815</ele>
        <time>2018-12-28T05:48:40Z</time>
      </trkpt>
      <trkpt lat="36.520140" lon="-118.778450">
        <ele>786.608</ele>
        <time>2018-12-28T05:49:00Z</time>
      </trkpt>
      <trkpt lat="36.520170" lon="-118.778490">
        <ele>787.257</ele>
        <time>2018-12-28T05:49:20Z</time>
      </trkpt>
      <trkpt lat="36.520180" lon="-118.778510">
        <ele>787.965</ele>
        <time>2018-12-28T05:49:40Z</time>
      </trkpt>
      <trkpt lat="36.520190" lon="-118.778540">
        <ele>788.770</ele>
        <time>2018-12-28T05:50:00Z</time>
      </trkpt>
      <trkpt lat="36.520200" lon="-118.778570">
        <ele>789.420</ele>
        <time>2018-12-28T05:50:20Z</time>
      </trkpt>
      <trkpt lat="36.520200" lon="-118.778610">
        <ele>790.184</ele>
        <time>2018-12-28T05:50:40Z</time>
      </trkpt>
      <trkpt lat="36.520200" lon="-118.778650">
        <ele>790.857</ele>
        <time>2018-12-28T05:51:00Z</time>
      </trkpt>
      <trkpt lat="36.520190" lon="-118.778700">
        <ele>791.758</ele>
        <time>2018-12-28T05:51:20Z</time>
      </trkpt>
      <trkpt lat="36.520180" lon="-118.778730">
        <ele>792.331</ele>
        <time>2018-12-28T05:51:40Z</time>
      </trkpt>
      <trkpt lat="36.520160" lon="-118.778760">
        <ele>793.492</ele>
        <time>2018-12-28T05:52:00Z</time>
      </trkpt>
      <trkpt lat="36.520140" lon="-118.778790">
        <ele>795.073</ele>
        <time>2018-12-28T05:52:20Z</time>
      </trkpt>
      <trkpt lat="36.520100" lon="-118.778830">
        <ele>796.520</ele>
        <time>2018-12-28T05:52:40Z</time>
      </trkpt>
      <trkpt lat="36.520050" lon="-118.778860">
        <ele>797.308</ele>
        <time>2018-12-28T05:53:00Z</time>
      </trkpt>
      <trkpt lat="36.519990" lon="-118.778900">
        <ele>798.552</ele>
        <time>2018-12-28T05:53:20Z</time>
      </trkpt>
      <trkpt lat="36.519900" lon="-118.778940">
        <ele>799.310</ele>
        <time>2018-12-28T05:53:40Z</time>
      </trkpt>
      <trkpt lat="36.519830" lon="-118.778970">
        <ele>799.155</ele>
        <time>2018-12-28T05:54:00Z</time>
      </trkpt>
      <trkpt lat="36.519770" lon="-118.779010">
        <ele>798.575</ele>
        <time>2018-12-28T05:54:20Z</time>
      </trkpt>
      <trkpt lat="36.519730" lon="-118.779030">
        <ele>797.619</ele>
        <time>2018-12-28T05:54:40Z</time>
      </trkpt>
      <trkpt lat="36.519700" lon="-118.779060">
        <ele>797.232</ele>
        <time>2018-12-28T05:55:00Z</time>
      </trkpt>
      <trkpt lat="36.519660" lon="-118.779100">
        <ele>796.613</ele>
        <time>2018-12-28T05:55:20Z</time>
      </trkpt>
      <trkpt lat="36.519630" lon="-118.779130">
        <ele>796.286</ele>
        <time>2018-12-28T05:55:40Z</time>
      </trkpt>
      <trkpt lat="36.519600" lon="-118.779170">
        <ele>796.054</ele>
        <time>2018-12-28T05:56:00Z</time>
      </trkpt>
      <trkpt lat="36.519570" lon="-118.779220">
        <ele>795.956</ele>
        <time>2018-12-28T05:56:20Z</time>
      </trkpt>
      <trkpt lat="36.519550" lon="-118.779270">
        <ele>796.211</ele>
        <time>2018-12-28T05:56:40Z</time>
      </trkpt>
      <trkpt lat="36.519530" lon="-118.779310">
        <ele>796.108</ele>
        <time>2018-12-28T05:57:00Z</time>
      </trkpt>
      <trkpt lat="36.519500" lon="-118.779400">
        <ele>795.038</ele>
        <time>2018-12-28T05:57:20Z</time>
      </trkpt>
      <trkpt lat="36.519470" lon="-118.779470">
        <ele>793.876</ele>
        <time>2018-12-28T05:57:40Z</time>
      </trkpt>
      <trkpt lat="36.519460" lon="-118.779520">
        <ele>793.631</ele>
        <time>2018-12-28T05:58:00Z</time>
      </trkpt>
      <trkpt lat="36.519440" lon="-118.779560">
        <ele>792.971</ele>
        <time>2018-12-28T05:58:20Z</time>
      </trkpt>
      <trkpt lat="36.519430" lon="-118.779610">
        <ele>792.625</ele>
        <time>2018-12-28T05:58:40Z</time>
      </trkpt>
      <trkpt lat="36.519420" lon="-118.779690">
        <ele>792.328</ele>
        <time>2018-12-28T05:59:00Z</time>
      </trkpt>
      <trkpt lat="36.519410" lon="-118.779750">
        <ele>792.059</ele>
        <time>2018-12-28T05:59:20Z</time>
      </trkpt>
      <trkpt lat="36.519410" lon="-118.779790">
        <ele>792.182</ele>
        <time>2018-12-28T05:59:40Z</time>
      </trkpt>
      <trkpt lat="36.519390" lon="-118.779900">
        <ele>792.416</ele>
        <time>2018-12-28T06:00:00Z</time>
      </trkpt>
      <trkpt lat="36.519380" lon="-118.779940">
        <ele>792.976</ele>
        <time>2018-12-28T06:00:20Z</time>
      </trkpt>
      <trkpt lat="36.519360" lon="-118.779990">
        <ele>793.113</ele>
        <time>2018-12-28T06:00:40Z</time>
      </trkpt>
      <trkpt lat="36.519340" lon="-118.780030">
        <ele>793.108</ele>
        <time>2018-12-28T06:01:00Z</time>
      </trkpt>
      <trkpt lat="36.519320" lon="-118.780070">
        <ele>793.124</ele>
        <time>2018-12-28T06:01:20Z</time>
      </trkpt>
      <trkpt lat="36.519290" lon="-118.780090">
        <ele>792.522</ele>
        <time>2018-12-28T06:01:40Z</time>
      </trkpt>
      <trkpt lat="36.519260" lon="-118.780120">
        <ele>792.677</ele>
        <time>2018-12-28T06:02:00Z</time>
      </trkpt>
      <trkpt lat="36.519230" lon="-118.780140">
        <ele>792.477</ele>
        <time>2018-12-28T06:02:20Z</time>
      </trkpt>
      <trkpt lat="36.519110" lon="-118.780190">
        <ele>791.671</ele>
        <time>2018-12-28T06:02:40Z</time>
      </trkpt>
      <trkpt lat="36.519020" lon="-118.780230">
        <ele>790.974</ele>
        <time>2018-12-28T06:03:00Z</time>
      </trkpt>
      <trkpt lat="36.518970" lon="-118.780260">
        <ele>790.765</ele>
        <time>2018-12-28T06:03:20Z</time>
      </trkpt>
      <trkpt lat="36.518930" lon="-118.780280">
        <ele>790.428</ele>
        <time>2018-12-28T06:03:40Z</time>
      </trkpt>
      <trkpt lat="36.518890" lon="-118.780320">
        <ele>790.461</ele>
        <time>2018-12-28T06:04:00Z</time>
      </trkpt>
      <trkpt lat="36.518860" lon="-118.780350">
        <ele>790.321</ele>
        <time>2018-12-28T06:04:20Z</time>
      </trkpt>
      <trkpt lat="36.518840" lon="-118.780390">
        <ele>790.513</ele>
        <time>2018-12-28T06:04:40Z</time>
      </trkpt>
      <trkpt lat="36.518800" lon="-118.780460">
        <ele>790.808</ele>
        <time>2018-12-28T06:05:00Z</time>
      </trkpt>
      <trkpt lat="36.518740" lon="-118.780570">
        <ele>790.899</ele>
        <time>2018-12-28T06:05:20Z</time>
      </trkpt>
      <trkpt lat="36.518680" lon="-118.780660">
        <ele>789.747</ele>
        <time>2018-12-28T06:05:40Z</time>
      </trkpt>
      <trkpt lat="36.518620" lon="-118.780770">
        <ele>787.482</ele>
        <time>2018-12-28T06:06:00Z</time>
      </trkpt>
      <trkpt lat="36.518540" lon="-118.780920">
        <ele>783.232</ele>
        <time>2018-12-28T06:06:20Z</time>
      </trkpt>
      <trkpt lat="36.518520" lon="-118.780980">
        <ele>781.886</ele>
        <time>2018-12-28T06:06:40Z</time>
      </trkpt>
      <trkpt lat="36.518510" lon="-118.781030">
        <ele>780.949</ele>
        <time>2018-12-28T06:07:00Z</time>
      </trkpt>
      <trkpt lat="36.518510" lon="-118.781080">
        <ele>780.410</ele>
        <time>2018-12-28T06:07:20Z</time>
      </trkpt>
      <trkpt lat="36.518510" lon="-118.781140">
        <ele>779.973</ele>
        <time>2018-12-28T06:07:40Z</time>
      </trkpt>
      <trkpt lat="36.518520" lon="-118.781220">
        <ele>779.654</ele>
        <time>2018-12-28T06:08:00Z</time>
      </trkpt>
      <trkpt lat="36.518530" lon="-118.781300">
        <ele>779.756</ele>
        <time>2018-12-28T06:08:20Z</time>
      </trkpt>
      <trkpt lat="36.518540" lon="-118.781370">
        <ele>780.211</ele>
        <time>2018-12-28T06:08:40Z</time>
      </trkpt>
      <trkpt lat="36.518550" lon="-118.781430">
        <ele>780.608</ele>
        <time>2018-12-28T06:09:00Z</time>
      </trkpt>
      <trkpt lat="36.518550" lon="-118.781480">
        <ele>780.688</ele>
        <time>2018-12-28T06:09:20Z</time>
      </trkpt>
      <trkpt lat="36.518550" lon="-118.781540">
        <ele>780.616</ele>
        <time>2018-12-28T06:09:40Z</time>
      </trkpt>
      <trkpt lat="36.518530" lon="-118.781610">
        <ele>779.591</ele>
        <time>2018-12-28T06:10:00Z</time>
      </trkpt>
      <trkpt lat="36.518510" lon="-118.781730">
        <ele>778.441</ele>
        <time>2018-12-28T06:10:20Z</time>
      </trkpt>
      <trkpt lat="36.518500" lon="-118.781800">
        <ele>777.955</ele>
        <time>2018-12-28T06:10:40Z</time>
      </trkpt>
      <trkpt lat="36.518490" lon="-118.781880">
        <ele>777.178</ele>
        <time>2018-12-28T06:11:00Z</time>
      </trkpt>
      <trkpt lat="36.518490" lon="-118.781930">
        <ele>777.089</ele>
        <time>2018-12-28T06:11:20Z</time>
      </trkpt>
      <trkpt lat="36.518500" lon="-118.781990">
        <ele>777.282</ele>
        <time>2018-12-28T06:11:40Z</time>
      </trkpt>
      <trkpt lat="36.518510" lon="-118.782040">
        <ele>777.511</ele>
        <time>2018-12-28T06:12:00Z</time>
      </trkpt>
      <trkpt lat="36.518520" lon="-118.782100">
        <ele>777.721</ele>
        <time>2018-12-28T06:12:20Z</time>
      </trkpt>
      <trkpt lat="36.518530" lon="-118.782180">
        <ele>778.203</ele>
        <time>2018-12-28T06:12:40Z</time>
      </trkpt>
      <trkpt lat="36.518540" lon="-118.782240">
        <ele>778.508</ele>
        <time>2018-12-28T06:13:00Z</time>
      </trkpt>
      <trkpt lat="36.518530" lon="-118.782280">
        <ele>778.324</ele>
        <time>2018-12-28T06:13:20Z</time>
      </trkpt>
      <trkpt lat="36.518520" lon="-118.782330">
        <ele>778.252</ele>
        <time>2018-12-28T06:13:40Z</time>
      </trkpt>
      <trkpt lat="36.518510" lon="-118.782380">
        <ele>778.687</ele>
        <time>2018-12-28T06:14:00Z</time>
      </trkpt>
      <trkpt lat="36.518490" lon="-118.782410">
        <ele>779.167</ele>
        <time>2018-12-28T06:14:20Z</time>
      </trkpt>
      <trkpt lat="36.518470" lon="-118.782440">
        <ele>779.571</ele>
        <time>2018-12-28T06:14:40Z</time>
      </trkpt>
      <trkpt lat="36.518420" lon="-118.782500">
        <ele>779.844</ele>
        <time>2018-12-28T06:15:00Z</time>
      </trkpt>
      <trkpt lat="36.518310" lon="-118.782640">
        <ele>780.235</ele>
        <time>2018-12-28T06:15:20Z</time>
      </trkpt>
      <trkpt lat="36.518170" lon="-118.782810">
        <ele>782.228</ele>
        <time>2018-12-28T06:15:40Z</time>
      </trkpt>
      <trkpt lat="36.518040" lon="-118.782960">
        <ele>782.382</ele>
        <time>2018-12-28T06:16:00Z</time>
      </trkpt>
      <trkpt lat="36.517910" lon="-118.783140">
        <ele>782.543</ele>
        <time>2018-12-28T06:16:20Z</time>
      </trkpt>
      <trkpt lat="36.517770" lon="-118.783310">
        <ele>783.717</ele>
        <time>2018-12-28T06:16:40Z</time>
      </trkpt>
      <trkpt lat="36.517630" lon="-118.783450">
        <ele>781.808</ele>
        <time>2018-12-28T06:17:00Z</time>
      </trkpt>
      <trkpt lat="36.517540" lon="-118.783540">
        <ele>785.351</ele>
        <time>2018-12-28T06:17:20Z</time>
      </trkpt>
      <trkpt lat="36.517420" lon="-118.783620">
        <ele>786.159</ele>
        <time>2018-12-28T06:17:40Z</time>
      </trkpt>
      <trkpt lat="36.517360" lon="-118.783670">
        <ele>786.194</ele>
        <time>2018-12-28T06:18:00Z</time>
      </trkpt>
      <trkpt lat="36.517310" lon="-118.783720">
        <ele>786.154</ele>
        <time>2018-12-28T06:18:20Z</time>
      </trkpt>
      <trkpt lat="36.517270" lon="-118.783750">
        <ele>785.498</ele>
        <time>2018-12-28T06:18:40Z</time>
      </trkpt>
      <trkpt lat="36.517250" lon="-118.783790">
        <ele>786.071</ele>
        <time>2018-12-28T06:19:00Z</time>
      </trkpt>
      <trkpt lat="36.517220" lon="-118.783840">
        <ele>786.312</ele>
        <time>2018-12-28T06:19:20Z</time>
      </trkpt>
      <trkpt lat="36.517190" lon="-118.783900">
        <ele>786.695</ele>
        <time>2018-12-28T06:19:40Z</time>
      </trkpt>
      <trkpt lat="36.517170" lon="-118.783970">
        <ele>787.523</ele>
        <time>2018-12-28T06:20:00Z</time>
      </trkpt>
      <trkpt lat="36.517140" lon="-118.784030">
        <ele>787.183</ele>
        <time>2018-12-28T06:20:20Z</time>
      </trkpt>
      <trkpt lat="36.517120" lon="-118.784100">
        <ele>788.611</ele>
        <time>2018-12-28T06:20:40Z</time>
      </trkpt>
      <trkpt lat="36.517080" lon="-118.784170">
        <ele>789.208</ele>
        <time>2018-12-28T06:21:00Z</time>
      </trkpt>
      <trkpt lat="36.517050" lon="-118.784210">
        <ele>789.965</ele>
        <time>2018-12-28T06:21:20Z</time>
      </trkpt>
      <trkpt lat="36.517000" lon="-118.784290">
        <ele>791.293</ele>
        <time>2018-12-28T06:21:40Z</time>
      </trkpt>
      <trkpt lat="36.516930" lon="-118.784350">
        <ele>791.158</ele>
        <time>2018-12-28T06:22:00Z</time>
      </trkpt>
      <trkpt lat="36.516880" lon="-118.784400">
        <ele>791.898</ele>
        <time>2018-12-28T06:22:20Z</time>
      </trkpt>
      <trkpt lat="36.516820" lon="-118.784450">
        <ele>792.082</ele>
        <time>2018-12-28T06:22:40Z</time>
      </trkpt>
      <trkpt lat="36.516760" lon="-118.784490">
        <ele>793.465</ele>
        <time>2018-12-28T06:23:00Z</time>
      </trkpt>
      <trkpt lat="36.516700" lon="-118.784530">
        <ele>794.876</ele>
        <time>2018-12-28T06:23:20Z</time>
      </trkpt>
      <trkpt lat="36.516650" lon="-118.784560">
        <ele>795.679</ele>
        <time>2018-12-28T06:23:40Z</time>
      </trkpt>
      <trkpt lat="36.516560" lon="-118.784600">
        <ele>796.147</ele>
        <time>2018-12-28T06:24:00Z</time>
      </trkpt>
      <trkpt lat="36.516460" lon="-118.784640">
        <ele>797.329</ele>
        <time>2018-12-28T06:24:20Z</time>
      </trkpt>
      <trkpt lat="36.516370" lon="-118.784680">
        <ele>798.721</ele>
        <time>2018-12-28T06:24:40Z</time>
      </trkpt>
      <trkpt lat="36.516280" lon="-118.784700">
        <ele>798.808</ele>
        <time>2018-12-28T06:25:00Z</time>
      </trkpt>
      <trkpt lat="36.516200" lon="-118.784720">
        <ele>798.177</ele>
        <time>2018-12-28T06:25:20Z</time>
      </trkpt>
      <trkpt lat="36.516130" lon="-118.784740">
        <ele>796.985</ele>
        <time>2018-12-28T06:25:40Z</time>
      </trkpt>
      <trkpt lat="36.516070" lon="-118.784760">
        <ele>795.850</ele>
        <time>2018-12-28T06:26:00Z</time>
      </trkpt>
      <trkpt lat="36.516030" lon="-118.784760">
        <ele>794.510</ele>
        <time>2018-12-28T06:26:20Z</time>
      </trkpt>
      <trkpt lat="36.516000" lon="-118.784770">
        <ele>793.844</ele>
        <time>2018-12-28T06:26:40Z</time>
      </trkpt>
      <trkpt lat="36.515990" lon="-118.784780">
        <ele>793.767</ele>
        <time>2018-12-28T06:27:00Z</time>
      </trkpt>
      <trkpt lat="36.515960" lon="-118.784800">
        <ele>793.248</ele>
        <time>2018-12-28T06:27:20Z</time>
      </trkpt>
      <trkpt lat="36.515930" lon="-118.784810">
        <ele>792.731</ele>
        <time>2018-12-28T06:27:40Z</time>
      </trkpt>
      <trkpt lat="36.515900" lon="-118.784840">
        <ele>792.569</ele>
        <time>2018-12-28T06:28:00Z</time>
      </trkpt>
      <trkpt lat="36.515870" lon="-118.784870">
        <ele>792.204</ele>
        <time>2018-12-28T06:28:20Z</time>
      </trkpt>
      <trkpt lat="36.515850" lon="-118.784890">
        <ele>791.824</ele>
        <time>2018-12-28T06:28:40Z</time>
      </trkpt>
      <trkpt lat="36.515820" lon="-118.784930">
        <ele>791.208</ele>
        <time>2018-12-28T06:29:00Z</time>
      </trkpt>
      <trkpt lat="36.515800" lon="-118.784970">
        <ele>790.899</ele>
        <time>2018-12-28T06:29:20Z</time>
      </trkpt>
      <trkpt lat="36.515790" lon="-118.784990">
        <ele>790.617</ele>
        <time>2018-12-28T06:29:40Z</time>
      </trkpt>
      <trkpt lat="36.515770" lon="-118.785030">
        <ele>790.242</ele>
        <time>2018-12-28T06:30:00Z</time>
      </trkpt>
      <trkpt lat="36.515760" lon="-118.785090">
        <ele>790.122</ele>
        <time>2018-12-28T06:30:20Z</time>
      </trkpt>
      <trkpt lat="36.515750" lon="-118.785130">
        <ele>790.096</ele>
        <time>2018-12-28T06:30:40Z</time>
      </trkpt>
      <trkpt lat="36.515740" lon="-118.785170">
        <ele>789.539</ele>
        <time>2018-12-28T06:31:00Z</time>
      </trkpt>
      <trkpt lat="36.515730" lon="-118.785240">
        <ele>789.090</ele>
        <time>2018-12-28T06:31:20Z</time>
      </trkpt>
      <trkpt lat="36.515730" lon="-118.785340">
        <ele>788.633</ele>
        <time>2018-12-28T06:31:40Z</time>
      </trkpt>
      <trkpt lat="36.515720" lon="-118.785390">
        <ele>788.166</ele>
        <time>2018-12-28T06:32:00Z</time>
      </trkpt>
      <trkpt lat="36.515730" lon="-118.785480">
        <ele>787.429</ele>
        <time>2018-12-28T06:32:20Z</time>
      </trkpt>
      <trkpt lat="36.515740" lon="-118.785540">
        <ele>786.821</ele>
        <time>2018-12-28T06:32:40Z</time>
      </trkpt>
      <trkpt lat="36.515750" lon="-118.785570">
        <ele>786.608</ele>
        <time>2018-12-28T06:33:00Z</time>
      </trkpt>
      <trkpt lat="36.515760" lon="-118.785610">
        <ele>786.379</ele>
        <time>2018-12-28T06:33:20Z</time>
      </trkpt>
      <trkpt lat="36.515780" lon="-118.785660">
        <ele>786.047</ele>
        <time>2018-12-28T06:33:40Z</time>
      </trkpt>
      <trkpt lat="36.515810" lon="-118.785710">
        <ele>785.782</ele>
        <time>2018-12-28T06:34:00Z</time>
      </trkpt>
      <trkpt lat="36.515830" lon="-118.785740">
        <ele>785.352</ele>
        <time>2018-12-28T06:34:20Z</time>
      </trkpt>
      <trkpt lat="36.515860" lon="-118.785770">
        <ele>785.226</ele>
        <time>2018-12-28T06:34:40Z</time>
      </trkpt>
      <trkpt lat="36.515920" lon="-118.785820">
        <ele>785.499</ele>
        <time>2018-12-28T06:35:00Z</time>
      </trkpt>
      <trkpt lat="36.516050" lon="-118.785930">
        <ele>785.750</ele>
        <time>2018-12-28T06:35:20Z</time>
      </trkpt>
      <trkpt lat="36.516230" lon="-118.786060">
        <ele>785.283</ele>
        <time>2018-12-28T06:35:40Z</time>
      </trkpt>
      <trkpt lat="36.516310" lon="-118.786120">
        <ele>784.795</ele>
        <time>2018-12-28T06:36:00Z</time>
      </trkpt>
      <trkpt lat="36.516380" lon="-118.786170">
        <ele>784.249</ele>
        <time>2018-12-28T06:36:20Z</time>
      </trkpt>
      <trkpt lat="36.516420" lon="-118.786200">
        <ele>783.923</ele>
        <time>2018-12-28T06:36:40Z</time>
      </trkpt>
      <trkpt lat="36.516460" lon="-118.786220">
        <ele>783.808</ele>
        <time>2018-12-28T06:37:00Z</time>
      </trkpt>
      <trkpt lat="36.516510" lon="-118.786240">
        <ele>783.952</ele>
        <time>2018-12-28T06:37:20Z</time>
      </trkpt>
      <trkpt lat="36.516550" lon="-118.786270">
        <ele>783.420</ele>
        <time>2018-12-28T06:37:40Z</time>
      </trkpt>
      <trkpt lat="36.516590" lon="-118.786280">
        <ele>783.535</ele>
        <time>2018-12-28T06:38:00Z</time>
      </trkpt>
      <trkpt lat="36.516630" lon="-118.786290">
        <ele>783.675</ele>
        <time>2018-12-28T06:38:20Z</time>
      </trkpt>
      <trkpt lat="36.516700" lon="-118.786310">
        <ele>783.789</ele>
        <time>2018-12-28T06:38:40Z</time>
      </trkpt>
      <trkpt lat="36.516820" lon="-118.786350">
        <ele>783.572</ele>
        <time>2018-12-28T06:39:00Z</time>
      </trkpt>
      <trkpt lat="36.516970" lon="-118.786410">
        <ele>782.423</ele>
        <time>2018-12-28T06:39:20Z</time>
      </trkpt>
      <trkpt lat="36.517080" lon="-118.786460">
        <ele>781.386</ele>
        <time>2018-12-28T06:39:40Z</time>
      </trkpt>
      <trkpt lat="36.517140" lon="-118.786490">
        <ele>781.288</ele>
        <time>2018-12-28T06:40:00Z</time>
      </trkpt>
      <trkpt lat="36.517160" lon="-118.786500">
        <ele>781.324</ele>
        <time>2018-12-28T06:40:20Z</time>
      </trkpt>
      <trkpt lat="36.517180" lon="-118.786520">
        <ele>780.926</ele>
        <time>2018-12-28T06:40:40Z</time>
      </trkpt>
      <trkpt lat="36.517200" lon="-118.786530">
        <ele>781.008</ele>
        <time>2018-12-28T06:41:00Z</time>
      </trkpt>
      <trkpt lat="36.517230" lon="-118.786560">
        <ele>781.221</ele>
        <time>2018-12-28T06:41:20Z</time>
      </trkpt>
      <trkpt lat="36.517260" lon="-118.786590">
        <ele>781.459</ele>
        <time>2018-12-28T06:41:40Z</time>
      </trkpt>
      <trkpt lat="36.517280" lon="-118.786610">
        <ele>781.694</ele>
        <time>2018-12-28T06:42:00Z</time>
      </trkpt>
      <trkpt lat="36.517290" lon="-118.786630">
        <ele>781.694</ele>
        <time>2018-12-28T06:42:20Z</time>
      </trkpt>
      <trkpt lat="36.517320" lon="-118.786670">
        <ele>781.858</ele>
        <time>2018-12-28T06:42:40Z</time>
      </trkpt>
      <trkpt lat="36.517330" lon="-118.786700">
        <ele>781.791</ele>
        <time>2018-12-28T06:43:00Z</time>
      </trkpt>
      <trkpt lat="36.517350" lon="-118.786740">
        <ele>781.732</ele>
        <time>2018-12-28T06:43:20Z</time>
      </trkpt>
      <trkpt lat="36.517360" lon="-118.786770">
        <ele>781.695</ele>
        <time>2018-12-28T06:43:40Z</time>
      </trkpt>
      <trkpt lat="36.517370" lon="-118.786810">
        <ele>781.721</ele>
        <time>2018-12-28T06:44:00Z</time>
      </trkpt>
      <trkpt lat="36.517380" lon="-118.786840">
        <ele>782.141</ele>
        <time>2018-12-28T06:44:20Z</time>
      </trkpt>
      <trkpt lat="36.517380" lon="-118.786880">
        <ele>781.805</ele>
        <time>2018-12-28T06:44:40Z</time>
      </trkpt>
      <trkpt lat="36.517390" lon="-118.786940">
        <ele>781.808</ele>
        <time>2018-12-28T06:45:00Z</time>
      </trkpt>
      <trkpt lat="36.517390" lon="-118.786980">
        <ele>781.555</ele>
        <time>2018-12-28T06:45:20Z</time>
      </trkpt>
      <trkpt lat="36.517390" lon="-118.787020">
        <ele>781.113</ele>
        <time>2018-12-28T06:45:40Z</time>
      </trkpt>
      <trkpt lat="36.517380" lon="-118.787120">
        <ele>780.338</ele>
        <time>2018-12-28T06:46:00Z</time>
      </trkpt>
      <trkpt lat="36.517380" lon="-118.787180">
        <ele>780.598</ele>
        <time>2018-12-28T06:46:20Z</time>
      </trkpt>
      <trkpt lat="36.517350" lon="-118.787340">
        <ele>779.952</ele>
        <time>2018-12-28T06:46:40Z</time>
      </trkpt>
      <trkpt lat="36.517320" lon="-118.787560">
        <ele>779.465</ele>
        <time>2018-12-28T06:47:00Z</time>
      </trkpt>
      <trkpt lat="36.517300" lon="-118.787710">
        <ele>778.736</ele>
        <time>2018-12-28T06:47:20Z</time>
      </trkpt>
      <trkpt lat="36.517280" lon="-118.787830">
        <ele>777.939</ele>
        <time>2018-12-28T06:47:40Z</time>
      </trkpt>
      <trkpt lat="36.517270" lon="-118.787910">
        <ele>777.581</ele>
        <time>2018-12-28T06:48:00Z</time>
      </trkpt>
      <trkpt lat="36.517260" lon="-118.787970">
        <ele>778.161</ele>
        <time>2018-12-28T06:48:20Z</time>
      </trkpt>
      <trkpt lat="36.517240" lon="-118.788030">
        <ele>778.717</ele>
        <time>2018-12-28T06:48:40Z</time>
      </trkpt>
      <trkpt lat="36.517230" lon="-118.788050">
        <ele>778.908</ele>
        <time>2018-12-28T06:49:00Z</time>
      </trkpt>
      <trkpt lat="36.517220" lon="-118.788070">
        <ele>779.051</ele>
        <time>2018-12-28T06:49:20Z</time>
      </trkpt>
      <trkpt lat="36.517200" lon="-118.788110">
        <ele>779.479</ele>
        <time>2018-12-28T06:49:40Z</time>
      </trkpt>
      <trkpt lat="36.517170" lon="-118.788130">
        <ele>779.364</ele>
        <time>2018-12-28T06:50:00Z</time>
      </trkpt>
      <trkpt lat="36.517140" lon="-118.788150">
        <ele>779.154</ele>
        <time>2018-12-28T06:50:20Z</time>
      </trkpt>
      <trkpt lat="36.517120" lon="-118.788170">
        <ele>779.288</ele>
        <time>2018-12-28T06:50:40Z</time>
      </trkpt>
      <trkpt lat="36.517090" lon="-118.788180">
        <ele>779.071</ele>
        <time>2018-12-28T06:51:00Z</time>
      </trkpt>
      <trkpt lat="36.517060" lon="-118.788190">
        <ele>779.172</ele>
        <time>2018-12-28T06:51:20Z</time>
      </trkpt>
      <trkpt lat="36.517030" lon="-118.788190">
        <ele>779.145</ele>
        <time>2018-12-28T06:51:40Z</time>
      </trkpt>
      <trkpt lat="36.517010" lon="-118.788190">
        <ele>779.191</ele>
        <time>2018-12-28T06:52:00Z</time>
      </trkpt>
      <trkpt lat="36.516990" lon="-118.788190">
        <ele>779.181</ele>
        <time>2018-12-28T06:52:20Z</time>
      </trkpt>
      <trkpt lat="36.516970" lon="-118.788180">
        <ele>778.919</ele>
        <time>2018-12-28T06:52:40Z</time>
      </trkpt>
      <trkpt lat="36.516920" lon="-118.788160">
        <ele>778.408</ele>
        <time>2018-12-28T06:53:00Z</time>
      </trkpt>
      <trkpt lat="36.516860" lon="-118.788120">
        <ele>777.572</ele>
        <time>2018-12-28T06:53:20Z</time>
      </trkpt>
      <trkpt lat="36.516760" lon="-118.788050">
        <ele>777.270</ele>
        <time>2018-12-28T06:53:40Z</time>
      </trkpt>
      <trkpt lat="36.516690" lon="-118.787990">
        <ele>777.435</ele>
        <time>2018-12-28T06:54:00Z</time>
      </trkpt>
      <trkpt lat="36.516580" lon="-118.787910">
        <ele>777.635</ele>
        <time>2018-12-28T06:54:20Z</time>
      </trkpt>
      <trkpt lat="36.516520" lon="-118.787860">
        <ele>776.639</ele>
        <time>2018-12-28T06:54:40Z</time>
      </trkpt>
      <trkpt lat="36.516330" lon="-118.787710">
        <ele>771.852</ele>
        <time>2018-12-28T06:55:00Z</time>
      </trkpt>
      <trkpt lat="36.516300" lon="-118.787680">
        <ele>770.863</ele>
        <time>2018-12-28T06:55:20Z</time>
      </trkpt>
      <trkpt lat="36.516260" lon="-118.787670">
        <ele>770.716</ele>
        <time>2018-12-28T06:55:40Z</time>
      </trkpt>
      <trkpt lat="36.516240" lon="-118.787650">
        <ele>769.994</ele>
        <time>2018-12-28T06:56:00Z</time>
      </trkpt>
      <trkpt lat="36.516200" lon="-118.787640">
        <ele>769.557</ele>
        <time>2018-12-28T06:56:20Z</time>
      </trkpt>
      <trkpt lat="36.516160" lon="-118.787630">
        <ele>769.222</ele>
        <time>2018-12-28T06:56:40Z</time>
      </trkpt>
      <trkpt lat="36.516120" lon="-118.787630">
        <ele>769.308</ele>
        <time>2018-12-28T06:57:00Z</time>
      </trkpt>
      <trkpt lat="36.516080" lon="-118.787630">
        <ele>769.422</ele>
        <time>2018-12-28T06:57:20Z</time>
      </trkpt>
      <trkpt lat="36.516010" lon="-118.787640">
        <ele>769.970</ele>
        <time>2018-12-28T06:57:40Z</time>
      </trkpt>
      <trkpt lat="36.515880" lon="-118.787660">
        <ele>768.825</ele>
        <time>2018-12-28T06:58:00Z</time>
      </trkpt>
      <trkpt lat="36.515780" lon="-118.787670">
        <ele>767.175</ele>
        <time>2018-12-28T06:58:20Z</time>
      </trkpt>
      <trkpt lat="36.515720" lon="-118.787690">
        <ele>766.119</ele>
        <time>2018-12-28T06:58:40Z</time>
      </trkpt>
      <trkpt lat="36.515710" lon="-118.787690">
        <ele>765.942</ele>
        <time>2018-12-28T06:59:00Z</time>
      </trkpt>
      <trkpt lat="36.515690" lon="-118.787700">
        <ele>765.583</ele>
        <time>2018-12-28T06:59:20Z</time>
      </trkpt>
      <trkpt lat="36.515680" lon="-118.787710">
        <ele>765.436</ele>
        <time>2018-12-28T06:59:40Z</time>
      </trkpt>
      <trkpt lat="36.515670" lon="-118.787710">
        <ele>765.175</ele>
        <time>2018-12-28T07:00:00Z</time>
      </trkpt>
      <trkpt lat="36.515650" lon="-118.787730">
        <ele>764.728</ele>
        <time>2018-12-28T07:00:20Z</time>
      </trkpt>
      <trkpt lat="36.515640" lon="-118.787740">
        <ele>764.520</ele>
        <time>2018-12-28T07:00:40Z</time>
      </trkpt>
      <trkpt lat="36.515620" lon="-118.787760">
        <ele>764.008</ele>
        <time>2018-12-28T07:01:00Z</time>
      </trkpt>
      <trkpt lat="36.515600" lon="-118.787780">
        <ele>763.540</ele>
        <time>2018-12-28T07:01:20Z</time>
      </trkpt>
      <trkpt lat="36.515590" lon="-118.787810">
        <ele>763.268</ele>
        <time>2018-12-28T07:01:40Z</time>
      </trkpt>
      <trkpt lat="36.515580" lon="-118.787840">
        <ele>762.933</ele>
        <time>2018-12-28T07:02:00Z</time>
      </trkpt>
      <trkpt lat="36.515570" lon="-118.787890">
        <ele>762.643</ele>
        <time>2018-12-28T07:02:20Z</time>
      </trkpt>
      <trkpt lat="36.515560" lon="-118.787920">
        <ele>762.127</ele>
        <time>2018-12-28T07:02:40Z</time>
      </trkpt>
      <trkpt lat="36.515560" lon="-118.787950">
        <ele>761.720</ele>
        <time>2018-12-28T07:03:00Z</time>
      </trkpt>
      <trkpt lat="36.515570" lon="-118.787980">
        <ele>761.611</ele>
        <time>2018-12-28T07:03:20Z</time>
      </trkpt>
      <trkpt lat="36.515580" lon="-118.788020">
        <ele>761.384</ele>
        <time>2018-12-28T07:03:40Z</time>
      </trkpt>
      <trkpt lat="36.515600" lon="-118.788070">
        <ele>761.355</ele>
        <time>2018-12-28T07:04:00Z</time>
      </trkpt>
      <trkpt lat="36.515620" lon="-118.788110">
        <ele>761.407</ele>
        <time>2018-12-28T07:04:20Z</time>
      </trkpt>
      <trkpt lat="36.515650" lon="-118.788150">
        <ele>762.017</ele>
        <time>2018-12-28T07:04:40Z</time>
      </trkpt>
      <trkpt lat="36.515680" lon="-118.788210">
        <ele>762.108</ele>
        <time>2018-12-28T07:05:00Z</time>
      </trkpt>
      <trkpt lat="36.515700" lon="-118.788240">
        <ele>762.278</ele>
        <time>2018-12-28T07:05:20Z</time>
      </trkpt>
      <trkpt lat="36.515710" lon="-118.788280">
        <ele>761.876</ele>
        <time>2018-12-28T07:05:40Z</time>
      </trkpt>
      <trkpt lat="36.515720" lon="-118.788310">
        <ele>761.781</ele>
        <time>2018-12-28T07:06:00Z</time>
      </trkpt>
      <trkpt lat="36.515730" lon="-118.788330">
        <ele>761.851</ele>
        <time>2018-12-28T07:06:20Z</time>
      </trkpt>
      <trkpt lat="36.515730" lon="-118.788360">
        <ele>761.165</ele>
        <time>2018-12-28T07:06:40Z</time>
      </trkpt>
      <trkpt lat="36.515730" lon="-118.788390">
        <ele>760.348</ele>
        <time>2018-12-28T07:07:00Z</time>
      </trkpt>
      <trkpt lat="36.515730" lon="-118.788410">
        <ele>759.859</ele>
        <time>2018-12-28T07:07:20Z</time>
      </trkpt>
      <trkpt lat="36.515720" lon="-118.788440">
        <ele>758.462</ele>
        <time>2018-12-28T07:07:40Z</time>
      </trkpt>
      <trkpt lat="36.515710" lon="-118.788470">
        <ele>756.926</ele>
        <time>2018-12-28T07:08:00Z</time>
      </trkpt>
      <trkpt lat="36.515700" lon="-118.788480">
        <ele>756.547</ele>
        <time>2018-12-28T07:08:20Z</time>
      </trkpt>
      <trkpt lat="36.515680" lon="-118.788510">
        <ele>757.211</ele>
        <time>2018-12-28T07:08:40Z</time>
      </trkpt>
      <trkpt lat="36.515660" lon="-118.788530">
        <ele>757.908</ele>
        <time>2018-12-28T07:09:00Z</time>
      </trkpt>
      <trkpt lat="36.515620" lon="-118.788550">
        <ele>758.465</ele>
        <time>2018-12-28T07:09:20Z</time>
      </trkpt>
      <trkpt lat="36.515590" lon="-118.788550">
        <ele>758.133</ele>
        <time>2018-12-28T07:09:40Z</time>
      </trkpt>
      <trkpt lat="36.515560" lon="-118.788550">
        <ele>757.858</ele>
        <time>2018-12-28T07:10:00Z</time>
      </trkpt>
      <trkpt lat="36.515540" lon="-118.788550">
        <ele>757.658</ele>
        <time>2018-12-28T07:10:20Z</time>
      </trkpt>
      <trkpt lat="36.515470" lon="-118.788550">
        <ele>757.052</ele>
        <time>2018-12-28T07:10:40Z</time>
      </trkpt>
      <trkpt lat="36.515430" lon="-118.788540">
        <ele>756.275</ele>
        <time>2018-12-28T07:11:00Z</time>
      </trkpt>
      <trkpt lat="36.515390" lon="-118.788550">
        <ele>756.056</ele>
        <time>2018-12-28T07:11:20Z</time>
      </trkpt>
      <trkpt lat="36.515360" lon="-118.788560">
        <ele>755.889</ele>
        <time>2018-12-28T07:11:40Z</time>
      </trkpt>
      <trkpt lat="36.515310" lon="-118.788580">
        <ele>755.556</ele>
        <time>2018-12-28T07:12:00Z</time>
      </trkpt>
      <trkpt lat="36.515270" lon="-118.788600">
        <ele>755.259</ele>
        <time>2018-12-28T07:12:20Z</time>
      </trkpt>
      <trkpt lat="36.515170" lon="-118.788690">
        <ele>755.114</ele>
        <time>2018-12-28T07:12:40Z</time>
      </trkpt>
      <trkpt lat="36.515130" lon="-118.788720">
        <ele>754.508</ele>
        <time>2018-12-28T07:13:00Z</time>
      </trkpt>
      <trkpt lat="36.515080" lon="-118.788760">
        <ele>754.028</ele>
        <time>2018-12-28T07:13:20Z</time>
      </trkpt>
      <trkpt lat="36.515020" lon="-118.788810">
        <ele>753.436</ele>
        <time>2018-12-28T07:13:40Z</time>
      </trkpt>
      <trkpt lat="36.514980" lon="-118.788840">
        <ele>752.731</ele>
        <time>2018-12-28T07:14:00Z</time>
      </trkpt>
      <trkpt lat="36.514930" lon="-118.788870">
        <ele>751.681</ele>
        <time>2018-12-28T07:14:20Z</time>
      </trkpt>
      <trkpt lat="36.514900" lon="-118.788890">
        <ele>750.875</ele>
        <time>2018-12-28T07:14:40Z</time>
      </trkpt>
      <trkpt lat="36.514880" lon="-118.788900">
        <ele>750.238</ele>
        <time>2018-12-28T07:15:00Z</time>
      </trkpt>
      <trkpt lat="36.514860" lon="-118.788920">
        <ele>749.779</ele>
        <time>2018-12-28T07:15:20Z</time>
      </trkpt>
      <trkpt lat="36.514830" lon="-118.788950">
        <ele>749.052</ele>
        <time>2018-12-28T07:15:40Z</time>
      </trkpt>
      <trkpt lat="36.514800" lon="-118.788990">
        <ele>748.354</ele>
        <time>2018-12-28T07:16:00Z</time>
      </trkpt>
      <trkpt lat="36.514770" lon="-118.789030">
        <ele>747.756</ele>
        <time>2018-12-28T07:16:20Z</time>
      </trkpt>
      <trkpt lat="36.514750" lon="-118.789070">
        <ele>747.511</ele>
        <time>2018-12-28T07:16:40Z</time>
      </trkpt>
      <trkpt lat="36.514730" lon="-118.789110">
        <ele>747.208</ele>
        <time>2018-12-28T07:17:00Z</time>
      </trkpt>
      <trkpt lat="36.514730" lon="-118.789120">
        <ele>747.368</ele>
        <time>2018-12-28T07:17:20Z</time>
      </trkpt>
      <trkpt lat="36.514700" lon="-118.789180">
        <ele>747.056</ele>
        <time>2018-12-28T07:17:40Z</time>
      </trkpt>
      <trkpt lat="36.514680" lon="-118.789230">
        <ele>746.861</ele>
        <time>2018-12-28T07:18:00Z</time>
      </trkpt>
      <trkpt lat="36.514640" lon="-118.789280">
        <ele>745.971</ele>
        <time>2018-12-28T07:18:20Z</time>
      </trkpt>
      <trkpt lat="36.514600" lon="-118.789330">
        <ele>745.495</ele>
        <time>2018-12-28T07:18:40Z</time>
      </trkpt>
      <trkpt lat="36.514570" lon="-118.789360">
        <ele>745.448</ele>
        <time>2018-12-28T07:19:00Z</time>
      </trkpt>
      <trkpt lat="36.514530" lon="-118.789390">
        <ele>745.389</ele>
        <time>2018-12-28T07:19:20Z</time>
      </trkpt>
      <trkpt lat="36.514480" lon="-118.789430">
        <ele>745.042</ele>
        <time>2018-12-28T07:19:40Z</time>
      </trkpt>
      <trkpt lat="36.514380" lon="-118.789500">
        <ele>743.435</ele>
        <time>2018-12-28T07:20:00Z</time>
      </trkpt>
      <trkpt lat="36.514330" lon="-118.789540">
        <ele>742.386</ele>
        <time>2018-12-28T07:20:20Z</time>
      </trkpt>
      <trkpt lat="36.514300" lon="-118.789560">
        <ele>741.514</ele>
        <time>2018-12-28T07:20:40Z</time>
      </trkpt>
      <trkpt lat="36.514270" lon="-118.789600">
        <ele>741.108</ele>
        <time>2018-12-28T07:21:00Z</time>
      </trkpt>
      <trkpt lat="36.514240" lon="-118.789660">
        <ele>740.746</ele>
        <time>2018-12-28T07:21:20Z</time>
      </trkpt>
      <trkpt lat="36.514210" lon="-118.789720">
        <ele>740.094</ele>
        <time>2018-12-28T07:21:40Z</time>
      </trkpt>
      <trkpt lat="36.514190" lon="-118.789790">
        <ele>739.499</ele>
        <time>2018-12-28T07:22:00Z</time>
      </trkpt>
      <trkpt lat="36.514160" lon="-118.789910">
        <ele>738.849</ele>
        <time>2018-12-28T07:22:20Z</time>
      </trkpt>
      <trkpt lat="36.514130" lon="-118.790030">
        <ele>738.833</ele>
        <time>2018-12-28T07:22:40Z</time>
      </trkpt>
      <trkpt lat="36.514110" lon="-118.790140">
        <ele>738.976</ele>
        <time>2018-12-28T07:23:00Z</time>
      </trkpt>
      <trkpt lat="36.514100" lon="-118.790180">
        <ele>738.727</ele>
        <time>2018-12-28T07:23:20Z</time>
      </trkpt>
      <trkpt lat="36.514090" lon="-118.790230">
        <ele>738.560</ele>
        <time>2018-12-28T07:23:40Z</time>
      </trkpt>
      <trkpt lat="36.514070" lon="-118.790370">
        <ele>738.364</ele>
        <time>2018-12-28T07:24:00Z</time>
      </trkpt>
      <trkpt lat="36.514060" lon="-118.790470">
        <ele>738.506</ele>
        <time>2018-12-28T07:24:20Z</time>
      </trkpt>
      <trkpt lat="36.514060" lon="-118.790480">
        <ele>738.516</ele>
        <time>2018-12-28T07:24:40Z</time>
      </trkpt>
      <trkpt lat="36.514050" lon="-118.790530">
        <ele>738.508</ele>
        <time>2018-12-28T07:25:00Z</time>
      </trkpt>
      <trkpt lat="36.514040" lon="-118.790560">
        <ele>738.379</ele>
        <time>2018-12-28T07:25:20Z</time>
      </trkpt>
      <trkpt lat="36.514040" lon="-118.790580">
        <ele>738.447</ele>
        <time>2018-12-28T07:25:40Z</time>
      </trkpt>
      <trkpt lat="36.514010" lon="-118.790700">
        <ele>737.862</ele>
        <time>2018-12-28T07:26:00Z</time>
      </trkpt>
      <trkpt lat="36.513990" lon="-118.790760">
        <ele>737.382</ele>
        <time>2018-12-28T07:26:20Z</time>
      </trkpt>
      <trkpt lat="36.513950" lon="-118.790930">
        <ele>737.126</ele>
        <time>2018-12-28T07:26:40Z</time>
      </trkpt>
      <trkpt lat="36.513930" lon="-118.791000">
        <ele>736.739</ele>
        <time>2018-12-28T07:27:00Z</time>
      </trkpt>
      <trkpt lat="36.513890" lon="-118.791150">
        <ele>734.190</ele>
        <time>2018-12-28T07:27:20Z</time>
      </trkpt>
      <trkpt lat="36.513830" lon="-118.791340">
        <ele>730.453</ele>
        <time>2018-12-28T07:27:40Z</time>
      </trkpt>
      <trkpt lat="36.513780" lon="-118.791540">
        <ele>728.879</ele>
        <time>2018-12-28T07:28:00Z</time>
      </trkpt>
      <trkpt lat="36.513760" lon="-118.791600">
        <ele>728.205</ele>
        <time>2018-12-28T07:28:20Z</time>
      </trkpt>
      <trkpt lat="36.513740" lon="-118.791660">
        <ele>727.425</ele>
        <time>2018-12-28T07:28:40Z</time>
      </trkpt>
      <trkpt lat="36.513710" lon="-118.791780">
        <ele>726.408</ele>
        <time>2018-12-28T07:29:00Z</time>
      </trkpt>
      <trkpt lat="36.513700" lon="-118.791850">
        <ele>726.050</ele>
        <time>2018-12-28T07:29:20Z</time>
      </trkpt>
      <trkpt lat="36.513690" lon="-118.791920">
        <ele>725.578</ele>
        <time>2018-12-28T07:29:40Z</time>
      </trkpt>
      <trkpt lat="36.513670" lon="-118.792000">
        <ele>724.493</ele>
        <time>2018-12-28T07:30:00Z</time>
      </trkpt>
      <trkpt lat="36.513660" lon="-118.792100">
        <ele>723.813</ele>
        <time>2018-12-28T07:30:20Z</time>
      </trkpt>
      <trkpt lat="36.513650" lon="-118.792190">
        <ele>722.597</ele>
        <time>2018-12-28T07:30:40Z</time>
      </trkpt>
      <trkpt lat="36.513650" lon="-118.792300">
        <ele>721.660</ele>
        <time>2018-12-28T07:31:00Z</time>
      </trkpt>
      <trkpt lat="36.513650" lon="-118.792370">
        <ele>720.841</ele>
        <time>2018-12-28T07:31:20Z</time>
      </trkpt>
      <trkpt lat="36.513650" lon="-118.792440">
        <ele>718.994</ele>
        <time>2018-12-28T07:31:40Z</time>
      </trkpt>
      <trkpt lat="36.513660" lon="-118.792540">
        <ele>716.797</ele>
        <time>2018-12-28T07:32:00Z</time>
      </trkpt>
      <trkpt lat="36.513670" lon="-118.792670">
        <ele>714.123</ele>
        <time>2018-12-28T07:32:20Z</time>
      </trkpt>
      <trkpt lat="36.513680" lon="-118.792740">
        <ele>713.725</ele>
        <time>2018-12-28T07:32:40Z</time>
      </trkpt>
      <trkpt lat="36.513700" lon="-118.792840">
        <ele>713.608</ele>
        <time>2018-12-28T07:33:00Z</time>
      </trkpt>
      <trkpt lat="36.513720" lon="-118.792930">
        <ele>713.652</ele>
        <time>2018-12-28T07:33:20Z</time>
      </trkpt>
      <trkpt lat="36.513760" lon="-118.793130">
        <ele>714.080</ele>
        <time>2018-12-28T07:33:40Z</time>
      </trkpt>
      <trkpt lat="36.513820" lon="-118.793450">
        <ele>712.685</ele>
        <time>2018-12-28T07:34:00Z</time>
      </trkpt>
      <trkpt lat="36.513860" lon="-118.793610">
        <ele>711.685</ele>
        <time>2018-12-28T07:34:20Z</time>
      </trkpt>
      <trkpt lat="36.513890" lon="-118.793760">
        <ele>710.269</ele>
        <time>2018-12-28T07:34:40Z</time>
      </trkpt>
      <trkpt lat="36.513930" lon="-118.793920">
        <ele>707.552</ele>
        <time>2018-12-28T07:35:00Z</time>
      </trkpt>
      <trkpt lat="36.513940" lon="-118.793980">
        <ele>706.193</ele>
        <time>2018-12-28T07:35:20Z</time>
      </trkpt>
      <trkpt lat="36.513960" lon="-118.794020">
        <ele>705.476</ele>
        <time>2018-12-28T07:35:40Z</time>
      </trkpt>
      <trkpt lat="36.513980" lon="-118.794100">
        <ele>704.827</ele>
        <time>2018-12-28T07:36:00Z</time>
      </trkpt>
      <trkpt lat="36.514040" lon="-118.794240">
        <ele>704.668</ele>
        <time>2018-12-28T07:36:20Z</time>
      </trkpt>
      <trkpt lat="36.514080" lon="-118.794340">
        <ele>704.714</ele>
        <time>2018-12-28T07:36:40Z</time>
      </trkpt>
      <trkpt lat="36.514100" lon="-118.794400">
        <ele>704.808</ele>
        <time>2018-12-28T07:37:00Z</time>
      </trkpt>
      <trkpt lat="36.514120" lon="-118.794450">
        <ele>704.975</ele>
        <time>2018-12-28T07:37:20Z</time>
      </trkpt>
      <trkpt lat="36.514130" lon="-118.794500">
        <ele>704.733</ele>
        <time>2018-12-28T07:37:40Z</time>
      </trkpt>
      <trkpt lat="36.514140" lon="-118.794580">
        <ele>704.458</ele>
        <time>2018-12-28T07:38:00Z</time>
      </trkpt>
      <trkpt lat="36.514140" lon="-118.794630">
        <ele>704.568</ele>
        <time>2018-12-28T07:38:20Z</time>
      </trkpt>
      <trkpt lat="36.514140" lon="-118.794690">
        <ele>704.812</ele>
        <time>2018-12-28T07:38:40Z</time>
      </trkpt>
      <trkpt lat="36.514120" lon="-118.794760">
        <ele>704.625</ele>
        <time>2018-12-28T07:39:00Z</time>
      </trkpt>
      <trkpt lat="36.514110" lon="-118.794820">
        <ele>704.586</ele>
        <time>2018-12-28T07:39:20Z</time>
      </trkpt>
      <trkpt lat="36.514090" lon="-118.794890">
        <ele>703.729</ele>
        <time>2018-12-28T07:39:40Z</time>
      </trkpt>
      <trkpt lat="36.514080" lon="-118.794950">
        <ele>703.086</ele>
        <time>2018-12-28T07:40:00Z</time>
      </trkpt>
      <trkpt lat="36.514070" lon="-118.795020">
        <ele>702.260</ele>
        <time>2018-12-28T07:40:20Z</time>
      </trkpt>
      <trkpt lat="36.514070" lon="-118.795070">
        <ele>701.826</ele>
        <time>2018-12-28T07:40:40Z</time>
      </trkpt>
      <trkpt lat="36.514070" lon="-118.795110">
        <ele>701.508</ele>
        <time>2018-12-28T07:41:00Z</time>
      </trkpt>
      <trkpt lat="36.514070" lon="-118.795170">
        <ele>700.941</ele>
        <time>2018-12-28T07:41:20Z</time>
      </trkpt>
      <trkpt lat="36.514080" lon="-118.795220">
        <ele>700.659</ele>
        <time>2018-12-28T07:41:40Z</time>
      </trkpt>
      <trkpt lat="36.514090" lon="-118.795280">
        <ele>700.174</ele>
        <time>2018-12-28T07:42:00Z</time>
      </trkpt>
      <trkpt lat="36.514110" lon="-118.795440">
        <ele>698.484</ele>
        <time>2018-12-28T07:42:20Z</time>
      </trkpt>
      <trkpt lat="36.514120" lon="-118.795490">
        <ele>697.968</ele>
        <time>2018-12-28T07:42:40Z</time>
      </trkpt>
      <trkpt lat="36.514130" lon="-118.795560">
        <ele>697.221</ele>
        <time>2018-12-28T07:43:00Z</time>
      </trkpt>
      <trkpt lat="36.514130" lon="-118.795620">
        <ele>696.472</ele>
        <time>2018-12-28T07:43:20Z</time>
      </trkpt>
      <trkpt lat="36.514130" lon="-118.795720">
        <ele>695.495</ele>
        <time>2018-12-28T07:43:40Z</time>
      </trkpt>
      <trkpt lat="36.514120" lon="-118.795810">
        <ele>695.025</ele>
        <time>2018-12-28T07:44:00Z</time>
      </trkpt>
      <trkpt lat="36.514110" lon="-118.795890">
        <ele>694.626</ele>
        <time>2018-12-28T07:44:20Z</time>
      </trkpt>
      <trkpt lat="36.514090" lon="-118.795990">
        <ele>694.108</ele>
        <time>2018-12-28T07:44:40Z</time>
      </trkpt>
      <trkpt lat="36.514070" lon="-118.796090">
        <ele>693.808</ele>
        <time>2018-12-28T07:45:00Z</time>
      </trkpt>
      <trkpt lat="36.514030" lon="-118.796220">
        <ele>693.045</ele>
        <time>2018-12-28T07:45:20Z</time>
      </trkpt>
      <trkpt lat="36.513980" lon="-118.796400">
        <ele>691.883</ele>
        <time>2018-12-28T07:45:40Z</time>
      </trkpt>
      <trkpt lat="36.513950" lon="-118.796490">
        <ele>690.838</ele>
        <time>2018-12-28T07:46:00Z</time>
      </trkpt>
      <trkpt lat="36.513940" lon="-118.796560">
        <ele>690.438</ele>
        <time>2018-12-28T07:46:20Z</time>
      </trkpt>
      <trkpt lat="36.513930" lon="-118.796600">
        <ele>690.122</ele>
        <time>2018-12-28T07:46:40Z</time>
      </trkpt>
      <trkpt lat="36.513910" lon="-118.796690">
        <ele>689.395</ele>
        <time>2018-12-28T07:47:00Z</time>
      </trkpt>
      <trkpt lat="36.513900" lon="-118.796760">
        <ele>689.086</ele>
        <time>2018-12-28T07:47:20Z</time>
      </trkpt>
      <trkpt lat="36.513870" lon="-118.796980">
        <ele>687.399</ele>
        <time>2018-12-28T07:47:40Z</time>
      </trkpt>
      <trkpt lat="36.513830" lon="-118.797270">
        <ele>685.755</ele>
        <time>2018-12-28T07:48:00Z</time>
      </trkpt>
      <trkpt lat="36.513780" lon="-118.797540">
        <ele>682.607</ele>
        <time>2018-12-28T07:48:20Z</time>
      </trkpt>
      <trkpt lat="36.513740" lon="-118.797830">
        <ele>678.617</ele>
        <time>2018-12-28T07:48:40Z</time>
      </trkpt>
      <trkpt lat="36.513710" lon="-118.798030">
        <ele>675.008</ele>
        <time>2018-12-28T07:49:00Z</time>
      </trkpt>
      <trkpt lat="36.513670" lon="-118.798320">
        <ele>670.018</ele>
        <time>2018-12-28T07:49:20Z</time>
      </trkpt>
      <trkpt lat="36.513650" lon="-118.798500">
        <ele>667.956</ele>
        <time>2018-12-28T07:49:40Z</time>
      </trkpt>
      <trkpt lat="36.513620" lon="-118.798670">
        <ele>666.781</ele>
        <time>2018-12-28T07:50:00Z</time>
      </trkpt>
      <trkpt lat="36.513610" lon="-118.798750">
        <ele>666.151</ele>
        <time>2018-12-28T07:50:20Z</time>
      </trkpt>
      <trkpt lat="36.513600" lon="-118.798850">
        <ele>665.455</ele>
        <time>2018-12-28T07:50:40Z</time>
      </trkpt>
      <trkpt lat="36.513610" lon="-118.798930">
        <ele>665.128</ele>
        <time>2018-12-28T07:51:00Z</time>
      </trkpt>
      <trkpt lat="36.513610" lon="-118.798980">
        <ele>664.979</ele>
        <time>2018-12-28T07:51:20Z</time>
      </trkpt>
      <trkpt lat="36.513620" lon="-118.799050">
        <ele>664.612</ele>
        <time>2018-12-28T07:51:40Z</time>
      </trkpt>
      <trkpt lat="36.513640" lon="-118.799110">
        <ele>664.451</ele>
        <time>2018-12-28T07:52:00Z</time>
      </trkpt>
      <trkpt lat="36.513650" lon="-118.799150">
        <ele>664.201</ele>
        <time>2018-12-28T07:52:20Z</time>
      </trkpt>
      <trkpt lat="36.513670" lon="-118.799190">
        <ele>664.111</ele>
        <time>2018-12-28T07:52:40Z</time>
      </trkpt>
      <trkpt lat="36.513680" lon="-118.799220">
        <ele>664.008</ele>
        <time>2018-12-28T07:53:00Z</time>
      </trkpt>
      <trkpt lat="36.513710" lon="-118.799270">
        <ele>663.958</ele>
        <time>2018-12-28T07:53:20Z</time>
      </trkpt>
      <trkpt lat="36.513760" lon="-118.799350">
        <ele>663.716</ele>
        <time>2018-12-28T07:53:40Z</time>
      </trkpt>
      <trkpt lat="36.513800" lon="-118.799390">
        <ele>663.511</ele>
        <time>2018-12-28T07:54:00Z</time>
      </trkpt>
      <trkpt lat="36.513850" lon="-118.799450">
        <ele>663.011</ele>
        <time>2018-12-28T07:54:20Z</time>
      </trkpt>
      <trkpt lat="36.513920" lon="-118.799520">
        <ele>662.235</ele>
        <time>2018-12-28T07:54:40Z</time>
      </trkpt>
      <trkpt lat="36.514070" lon="-118.799630">
        <ele>658.818</ele>
        <time>2018-12-28T07:55:00Z</time>
      </trkpt>
      <trkpt lat="36.514150" lon="-118.799690">
        <ele>656.239</ele>
        <time>2018-12-28T07:55:20Z</time>
      </trkpt>
      <trkpt lat="36.514240" lon="-118.799730">
        <ele>655.132</ele>
        <time>2018-12-28T07:55:40Z</time>
      </trkpt>
      <trkpt lat="36.514290" lon="-118.799740">
        <ele>655.219</ele>
        <time>2018-12-28T07:56:00Z</time>
      </trkpt>
      <trkpt lat="36.514340" lon="-118.799750">
        <ele>654.609</ele>
        <time>2018-12-28T07:56:20Z</time>
      </trkpt>
      <trkpt lat="36.514380" lon="-118.799750">
        <ele>654.119</ele>
        <time>2018-12-28T07:56:40Z</time>
      </trkpt>
      <trkpt lat="36.514520" lon="-118.799750">
        <ele>652.408</ele>
        <time>2018-12-28T07:57:00Z</time>
      </trkpt>
      <trkpt lat="36.514730" lon="-118.799750">
        <ele>651.434</ele>
        <time>2018-12-28T07:57:20Z</time>
      </trkpt>
      <trkpt lat="36.514840" lon="-118.799750">
        <ele>651.262</ele>
        <time>2018-12-28T07:57:40Z</time>
      </trkpt>
      <trkpt lat="36.514890" lon="-118.799750">
        <ele>650.867</ele>
        <time>2018-12-28T07:58:00Z</time>
      </trkpt>
      <trkpt lat="36.514930" lon="-118.799740">
        <ele>650.547</ele>
        <time>2018-12-28T07:58:20Z</time>
      </trkpt>
      <trkpt lat="36.514990" lon="-118.799740">
        <ele>649.781</ele>
        <time>2018-12-28T07:58:40Z</time>
      </trkpt>
      <trkpt lat="36.515070" lon="-118.799720">
        <ele>649.454</ele>
        <time>2018-12-28T07:59:00Z</time>
      </trkpt>
      <trkpt lat="36.515220" lon="-118.799680">
        <ele>649.845</ele>
        <time>2018-12-28T07:59:20Z</time>
      </trkpt>
      <trkpt lat="36.515510" lon="-118.799620">
        <ele>649.188</ele>
        <time>2018-12-28T07:59:40Z</time>
      </trkpt>
      <trkpt lat="36.515570" lon="-118.799610">
        <ele>648.369</ele>
        <time>2018-12-28T08:00:00Z</time>
      </trkpt>
      <trkpt lat="36.515620" lon="-118.799600">
        <ele>647.604</ele>
        <time>2018-12-28T08:00:20Z</time>
      </trkpt>
      <trkpt lat="36.515660" lon="-118.799610">
        <ele>646.724</ele>
        <time>2018-12-28T08:00:40Z</time>
      </trkpt>
      <trkpt lat="36.515700" lon="-118.799610">
        <ele>646.108</ele>
        <time>2018-12-28T08:01:00Z</time>
      </trkpt>
      <trkpt lat="36.515760" lon="-118.799630">
        <ele>645.759</ele>
        <time>2018-12-28T08:01:20Z</time>
      </trkpt>
      <trkpt lat="36.515810" lon="-118.799660">
        <ele>645.277</ele>
        <time>2018-12-28T08:01:40Z</time>
      </trkpt>
      <trkpt lat="36.515880" lon="-118.799710">
        <ele>644.612</ele>
        <time>2018-12-28T08:02:00Z</time>
      </trkpt>
      <trkpt lat="36.515920" lon="-118.799750">
        <ele>644.232</ele>
        <time>2018-12-28T08:02:20Z</time>
      </trkpt>
      <trkpt lat="36.515950" lon="-118.799780">
        <ele>643.966</ele>
        <time>2018-12-28T08:02:40Z</time>
      </trkpt>
      <trkpt lat="36.515970" lon="-118.799820">
        <ele>643.619</ele>
        <time>2018-12-28T08:03:00Z</time>
      </trkpt>
      <trkpt lat="36.516000" lon="-118.799880">
        <ele>643.380</ele>
        <time>2018-12-28T08:03:20Z</time>
      </trkpt>
      <trkpt lat="36.516020" lon="-118.799920">
        <ele>643.223</ele>
        <time>2018-12-28T08:03:40Z</time>
      </trkpt>
      <trkpt lat="36.516030" lon="-118.799980">
        <ele>643.062</ele>
        <time>2018-12-28T08:04:00Z</time>
      </trkpt>
      <trkpt lat="36.516040" lon="-118.800020">
        <ele>642.983</ele>
        <time>2018-12-28T08:04:20Z</time>
      </trkpt>
      <trkpt lat="36.516040" lon="-118.800080">
        <ele>642.611</ele>
        <time>2018-12-28T08:04:40Z</time>
      </trkpt>
      <trkpt lat="36.516040" lon="-118.800140">
        <ele>642.408</ele>
        <time>2018-12-28T08:05:00Z</time>
      </trkpt>
      <trkpt lat="36.516040" lon="-118.800200">
        <ele>642.129</ele>
        <time>2018-12-28T08:05:20Z</time>
      </trkpt>
      <trkpt lat="36.516020" lon="-118.800280">
        <ele>641.617</ele>
        <time>2018-12-28T08:05:40Z</time>
      </trkpt>
      <trkpt lat="36.515920" lon="-118.800870">
        <ele>638.372</ele>
        <time>2018-12-28T08:06:00Z</time>
      </trkpt>
      <trkpt lat="36.515770" lon="-118.801660">
        <ele>631.442</ele>
        <time>2018-12-28T08:06:20Z</time>
      </trkpt>
      <trkpt lat="36.515670" lon="-118.802190">
        <ele>627.036</ele>
        <time>2018-12-28T08:06:40Z</time>
      </trkpt>
      <trkpt lat="36.515580" lon="-118.802650">
        <ele>632.219</ele>
        <time>2018-12-28T08:07:00Z</time>
      </trkpt>
      <trkpt lat="36.515570" lon="-118.802690">
        <ele>632.720</ele>
        <time>2018-12-28T08:07:20Z</time>
      </trkpt>
      <trkpt lat="36.515540" lon="-118.802740">
        <ele>633.043</ele>
        <time>2018-12-28T08:07:40Z</time>
      </trkpt>
      <trkpt lat="36.515510" lon="-118.802810">
        <ele>633.568</ele>
        <time>2018-12-28T08:08:00Z</time>
      </trkpt>
      <trkpt lat="36.515490" lon="-118.802850">
        <ele>633.642</ele>
        <time>2018-12-28T08:08:20Z</time>
      </trkpt>
      <trkpt lat="36.515440" lon="-118.802910">
        <ele>633.526</ele>
        <time>2018-12-28T08:08:40Z</time>
      </trkpt>
      <trkpt lat="36.515390" lon="-118.802960">
        <ele>635.108</ele>
        <time>2018-12-28T08:09:00Z</time>
      </trkpt>
      <trkpt lat="36.515330" lon="-118.803000">
        <ele>636.159</ele>
        <time>2018-12-28T08:09:20Z</time>
      </trkpt>
      <trkpt lat="36.515280" lon="-118.803030">
        <ele>636.397</ele>
        <time>2018-12-28T08:09:40Z</time>
      </trkpt>
      <trkpt lat="36.515230" lon="-118.803050">
        <ele>635.852</ele>
        <time>2018-12-28T08:10:00Z</time>
      </trkpt>
      <trkpt lat="36.515180" lon="-118.803060">
        <ele>634.942</ele>
        <time>2018-12-28T08:10:20Z</time>
      </trkpt>
      <trkpt lat="36.515040" lon="-118.803100">
        <ele>633.936</ele>
        <time>2018-12-28T08:10:40Z</time>
      </trkpt>
      <trkpt lat="36.514760" lon="-118.803170">
        <ele>633.699</ele>
        <time>2018-12-28T08:11:00Z</time>
      </trkpt>
      <trkpt lat="36.514450" lon="-118.803250">
        <ele>634.250</ele>
        <time>2018-12-28T08:11:20Z</time>
      </trkpt>
      <trkpt lat="36.514380" lon="-118.803270">
        <ele>634.633</ele>
        <time>2018-12-28T08:11:40Z</time>
      </trkpt>
      <trkpt lat="36.514320" lon="-118.803290">
        <ele>635.111</ele>
        <time>2018-12-28T08:12:00Z</time>
      </trkpt>
      <trkpt lat="36.514280" lon="-118.803310">
        <ele>635.321</ele>
        <time>2018-12-28T08:12:20Z</time>
      </trkpt>
      <trkpt lat="36.514230" lon="-118.803330">
        <ele>635.003</ele>
        <time>2018-12-28T08:12:40Z</time>
      </trkpt>
      <trkpt lat="36.514100" lon="-118.803400">
        <ele>633.808</ele>
        <time>2018-12-28T08:13:00Z</time>
      </trkpt>
      <trkpt lat="36.514030" lon="-118.803440">
        <ele>632.584</ele>
        <time>2018-12-28T08:13:20Z</time>
      </trkpt>
      <trkpt lat="36.513950" lon="-118.803490">
        <ele>633.142</ele>
        <time>2018-12-28T08:13:40Z</time>
      </trkpt>
      <trkpt lat="36.513890" lon="-118.803530">
        <ele>633.817</ele>
        <time>2018-12-28T08:14:00Z</time>
      </trkpt>
      <trkpt lat="36.513790" lon="-118.803580">
        <ele>632.517</ele>
        <time>2018-12-28T08:14:20Z</time>
      </trkpt>
      <trkpt lat="36.513710" lon="-118.803620">
        <ele>631.651</ele>
        <time>2018-12-28T08:14:40Z</time>
      </trkpt>
      <trkpt lat="36.513630" lon="-118.803650">
        <ele>631.754</ele>
        <time>2018-12-28T08:15:00Z</time>
      </trkpt>
      <trkpt lat="36.513560" lon="-118.803670">
        <ele>631.665</ele>
        <time>2018-12-28T08:15:20Z</time>
      </trkpt>
      <trkpt lat="36.513510" lon="-118.803670">
        <ele>631.388</ele>
        <time>2018-12-28T08:15:40Z</time>
      </trkpt>
      <trkpt lat="36.513480" lon="-118.803670">
        <ele>631.189</ele>
        <time>2018-12-28T08:16:00Z</time>
      </trkpt>
      <trkpt lat="36.513440" lon="-118.803670">
        <ele>631.306</ele>
        <time>2018-12-28T08:16:20Z</time>
      </trkpt>
      <trkpt lat="36.513410" lon="-118.803670">
        <ele>631.526</ele>
        <time>2018-12-28T08:16:40Z</time>
      </trkpt>
      <trkpt lat="36.513370" lon="-118.803670">
        <ele>631.808</ele>
        <time>2018-12-28T08:17:00Z</time>
      </trkpt>
      <trkpt lat="36.513320" lon="-118.803660">
        <ele>632.091</ele>
        <time>2018-12-28T08:17:20Z</time>
      </trkpt>
      <trkpt lat="36.513220" lon="-118.803630">
        <ele>632.029</ele>
        <time>2018-12-28T08:17:40Z</time>
      </trkpt>
      <trkpt lat="36.513160" lon="-118.803610">
        <ele>632.014</ele>
        <time>2018-12-28T08:18:00Z</time>
      </trkpt>
      <trkpt lat="36.512660" lon="-118.803420">
        <ele>630.034</ele>
        <time>2018-12-28T08:18:20Z</time>
      </trkpt>
      <trkpt lat="36.512330" lon="-118.803300">
        <ele>625.758</ele>
        <time>2018-12-28T08:18:40Z</time>
      </trkpt>
      <trkpt lat="36.512180" lon="-118.803250">
        <ele>625.891</ele>
        <time>2018-12-28T08:19:00Z</time>
      </trkpt>
      <trkpt lat="36.512120" lon="-118.803210">
        <ele>625.142</ele>
        <time>2018-12-28T08:19:20Z</time>
      </trkpt>
      <trkpt lat="36.512060" lon="-118.803180">
        <ele>625.235</ele>
        <time>2018-12-28T08:19:40Z</time>
      </trkpt>
      <trkpt lat="36.512010" lon="-118.803140">
        <ele>625.454</ele>
        <time>2018-12-28T08:20:00Z</time>
      </trkpt>
      <trkpt lat="36.511950" lon="-118.803090">
        <ele>625.656</ele>
        <time>2018-12-28T08:20:20Z</time>
      </trkpt>
      <trkpt lat="36.511890" lon="-118.803010">
        <ele>624.611</ele>
        <time>2018-12-28T08:20:40Z</time>
      </trkpt>
      <trkpt lat="36.511830" lon="-118.802930">
        <ele>623.308</ele>
        <time>2018-12-28T08:21:00Z</time>
      </trkpt>
      <trkpt lat="36.511760" lon="-118.802840">
        <ele>622.098</ele>
        <time>2018-12-28T08:21:20Z</time>
      </trkpt>
      <trkpt lat="36.511740" lon="-118.802800">
        <ele>621.196</ele>
        <time>2018-12-28T08:21:40Z</time>
      </trkpt>
      <trkpt lat="36.511710" lon="-118.802780">
        <ele>621.161</ele>
        <time>2018-12-28T08:22:00Z</time>
      </trkpt>
      <trkpt lat="36.511690" lon="-118.802750">
        <ele>620.561</ele>
        <time>2018-12-28T08:22:20Z</time>
      </trkpt>
      <trkpt lat="36.511660" lon="-118.802720">
        <ele>620.025</ele>
        <time>2018-12-28T08:22:40Z</time>
      </trkpt>
      <trkpt lat="36.511640" lon="-118.802700">
        <ele>619.788</ele>
        <time>2018-12-28T08:23:00Z</time>
      </trkpt>
      <trkpt lat="36.511610" lon="-118.802680">
        <ele>619.689</ele>
        <time>2018-12-28T08:23:20Z</time>
      </trkpt>
      <trkpt lat="36.511590" lon="-118.802670">
        <ele>619.672</ele>
        <time>2018-12-28T08:23:40Z</time>
      </trkpt>
      <trkpt lat="36.511560" lon="-118.802660">
        <ele>619.884</ele>
        <time>2018-12-28T08:24:00Z</time>
      </trkpt>
      <trkpt lat="36.511520" lon="-118.802650">
        <ele>620.207</ele>
        <time>2018-12-28T08:24:20Z</time>
      </trkpt>
      <trkpt lat="36.511500" lon="-118.802650">
        <ele>620.617</ele>
        <time>2018-12-28T08:24:40Z</time>
      </trkpt>
      <trkpt lat="36.511470" lon="-118.802650">
        <ele>621.208</ele>
        <time>2018-12-28T08:25:00Z</time>
      </trkpt>
      <trkpt lat="36.511440" lon="-118.802640">
        <ele>621.411</ele>
        <time>2018-12-28T08:25:20Z</time>
      </trkpt>
      <trkpt lat="36.511410" lon="-118.802650">
        <ele>622.339</ele>
        <time>2018-12-28T08:25:40Z</time>
      </trkpt>
      <trkpt lat="36.511380" lon="-118.802650">
        <ele>622.874</ele>
        <time>2018-12-28T08:26:00Z</time>
      </trkpt>
      <trkpt lat="36.511350" lon="-118.802660">
        <ele>623.764</ele>
        <time>2018-12-28T08:26:20Z</time>
      </trkpt>
      <trkpt lat="36.511310" lon="-118.802680">
        <ele>625.038</ele>
        <time>2018-12-28T08:26:40Z</time>
      </trkpt>
      <trkpt lat="36.511280" lon="-118.802690">
        <ele>625.841</ele>
        <time>2018-12-28T08:27:00Z</time>
      </trkpt>
      <trkpt lat="36.511250" lon="-118.802710">
        <ele>626.982</ele>
        <time>2018-12-28T08:27:20Z</time>
      </trkpt>
      <trkpt lat="36.511220" lon="-118.802740">
        <ele>626.755</ele>
        <time>2018-12-28T08:27:40Z</time>
      </trkpt>
      <trkpt lat="36.511180" lon="-118.802770">
        <ele>626.222</ele>
        <time>2018-12-28T08:28:00Z</time>
      </trkpt>
      <trkpt lat="36.511150" lon="-118.802810">
        <ele>626.362</ele>
        <time>2018-12-28T08:28:20Z</time>
      </trkpt>
      <trkpt lat="36.511080" lon="-118.802900">
        <ele>626.208</ele>
        <time>2018-12-28T08:28:40Z</time>
      </trkpt>
      <trkpt lat="36.511030" lon="-118.802980">
        <ele>625.908</ele>
        <time>2018-12-28T08:29:00Z</time>
      </trkpt>
      <trkpt lat="36.510950" lon="-118.803100">
        <ele>624.865</ele>
        <time>2018-12-28T08:29:20Z</time>
      </trkpt>
      <trkpt lat="36.510870" lon="-118.803230">
        <ele>623.823</ele>
        <time>2018-12-28T08:29:40Z</time>
      </trkpt>
      <trkpt lat="36.510830" lon="-118.803310">
        <ele>623.448</ele>
        <time>2018-12-28T08:30:00Z</time>
      </trkpt>
      <trkpt lat="36.510800" lon="-118.803370">
        <ele>623.038</ele>
        <time>2018-12-28T08:30:20Z</time>
      </trkpt>
      <trkpt lat="36.510790" lon="-118.803410">
        <ele>623.162</ele>
        <time>2018-12-28T08:30:40Z</time>
      </trkpt>
      <trkpt lat="36.510770" lon="-118.803460">
        <ele>622.975</ele>
        <time>2018-12-28T08:31:00Z</time>
      </trkpt>
      <trkpt lat="36.510760" lon="-118.803500">
        <ele>623.196</ele>
        <time>2018-12-28T08:31:20Z</time>
      </trkpt>
      <trkpt lat="36.510760" lon="-118.803530">
        <ele>623.599</ele>
        <time>2018-12-28T08:31:40Z</time>
      </trkpt>
      <trkpt lat="36.510750" lon="-118.803560">
        <ele>623.441</ele>
        <time>2018-12-28T08:32:00Z</time>
      </trkpt>
      <trkpt lat="36.510750" lon="-118.803600">
        <ele>624.081</ele>
        <time>2018-12-28T08:32:20Z</time>
      </trkpt>
      <trkpt lat="36.510750" lon="-118.803650">
        <ele>624.709</ele>
        <time>2018-12-28T08:32:40Z</time>
      </trkpt>
      <trkpt lat="36.510750" lon="-118.803730">
        <ele>625.808</ele>
        <time>2018-12-28T08:33:00Z</time>
      </trkpt>
      <trkpt lat="36.510750" lon="-118.803820">
        <ele>627.227</ele>
        <time>2018-12-28T08:33:20Z</time>
      </trkpt>
      <trkpt lat="36.510740" lon="-118.803900">
        <ele>628.235</ele>
        <time>2018-12-28T08:33:40Z</time>
      </trkpt>
      <trkpt lat="36.510740" lon="-118.803940">
        <ele>628.960</ele>
        <time>2018-12-28T08:34:00Z</time>
      </trkpt>
      <trkpt lat="36.510730" lon="-118.803980">
        <ele>629.230</ele>
        <time>2018-12-28T08:34:20Z</time>
      </trkpt>
      <trkpt lat="36.510710" lon="-118.804030">
        <ele>629.584</ele>
        <time>2018-12-28T08:34:40Z</time>
      </trkpt>
      <trkpt lat="36.510690" lon="-118.804080">
        <ele>629.867</ele>
        <time>2018-12-28T08:35:00Z</time>
      </trkpt>
      <trkpt lat="36.510670" lon="-118.804120">
        <ele>630.028</ele>
        <time>2018-12-28T08:35:20Z</time>
      </trkpt>
      <trkpt lat="36.510650" lon="-118.804140">
        <ele>629.921</ele>
        <time>2018-12-28T08:35:40Z</time>
      </trkpt>
      <trkpt lat="36.510620" lon="-118.804180">
        <ele>630.028</ele>
        <time>2018-12-28T08:36:00Z</time>
      </trkpt>
      <trkpt lat="36.510570" lon="-118.804230">
        <ele>629.989</ele>
        <time>2018-12-28T08:36:20Z</time>
      </trkpt>
      <trkpt lat="36.510510" lon="-118.804270">
        <ele>629.617</ele>
        <time>2018-12-28T08:36:40Z</time>
      </trkpt>
      <trkpt lat="36.510360" lon="-118.804370">
        <ele>628.608</ele>
        <time>2018-12-28T08:37:00Z</time>
      </trkpt>
      <trkpt lat="36.510290" lon="-118.804410">
        <ele>627.625</ele>
        <time>2018-12-28T08:37:20Z</time>
      </trkpt>
      <trkpt lat="36.510250" lon="-118.804440">
        <ele>627.333</ele>
        <time>2018-12-28T08:37:40Z</time>
      </trkpt>
      <trkpt lat="36.510200" lon="-118.804480">
        <ele>627.028</ele>
        <time>2018-12-28T08:38:00Z</time>
      </trkpt>
      <trkpt lat="36.510150" lon="-118.804520">
        <ele>626.868</ele>
        <time>2018-12-28T08:38:20Z</time>
      </trkpt>
      <trkpt lat="36.510120" lon="-118.804550">
        <ele>626.612</ele>
        <time>2018-12-28T08:38:40Z</time>
      </trkpt>
      <trkpt lat="36.510050" lon="-118.804640">
        <ele>625.945</ele>
        <time>2018-12-28T08:39:00Z</time>
      </trkpt>
      <trkpt lat="36.510010" lon="-118.804690">
        <ele>625.456</ele>
        <time>2018-12-28T08:39:20Z</time>
      </trkpt>
      <trkpt lat="36.509960" lon="-118.804760">
        <ele>625.289</ele>
        <time>2018-12-28T08:39:40Z</time>
      </trkpt>
      <trkpt lat="36.509920" lon="-118.804820">
        <ele>625.298</ele>
        <time>2018-12-28T08:40:00Z</time>
      </trkpt>
      <trkpt lat="36.509900" lon="-118.804860">
        <ele>625.515</ele>
        <time>2018-12-28T08:40:20Z</time>
      </trkpt>
      <trkpt lat="36.509880" lon="-118.804910">
        <ele>625.226</ele>
        <time>2018-12-28T08:40:40Z</time>
      </trkpt>
      <trkpt lat="36.509870" lon="-118.804970">
        <ele>625.408</ele>
        <time>2018-12-28T08:41:00Z</time>
      </trkpt>
      <trkpt lat="36.509860" lon="-118.805020">
        <ele>625.422</ele>
        <time>2018-12-28T08:41:20Z</time>
      </trkpt>
      <trkpt lat="36.509850" lon="-118.805060">
        <ele>625.190</ele>
        <time>2018-12-28T08:41:40Z</time>
      </trkpt>
      <trkpt lat="36.509850" lon="-118.805110">
        <ele>625.625</ele>
        <time>2018-12-28T08:42:00Z</time>
      </trkpt>
      <trkpt lat="36.509850" lon="-118.805170">
        <ele>626.045</ele>
        <time>2018-12-28T08:42:20Z</time>
      </trkpt>
      <trkpt lat="36.509840" lon="-118.805230">
        <ele>626.069</ele>
        <time>2018-12-28T08:42:40Z</time>
      </trkpt>
      <trkpt lat="36.509840" lon="-118.805300">
        <ele>626.612</ele>
        <time>2018-12-28T08:43:00Z</time>
      </trkpt>
      <trkpt lat="36.509830" lon="-118.805370">
        <ele>626.823</ele>
        <time>2018-12-28T08:43:20Z</time>
      </trkpt>
      <trkpt lat="36.509820" lon="-118.805420">
        <ele>627.196</ele>
        <time>2018-12-28T08:43:40Z</time>
      </trkpt>
      <trkpt lat="36.509810" lon="-118.805470">
        <ele>627.432</ele>
        <time>2018-12-28T08:44:00Z</time>
      </trkpt>
      <trkpt lat="36.509790" lon="-118.805520">
        <ele>627.692</ele>
        <time>2018-12-28T08:44:20Z</time>
      </trkpt>
      <trkpt lat="36.509760" lon="-118.805560">
        <ele>627.511</ele>
        <time>2018-12-28T08:44:40Z</time>
      </trkpt>
      <trkpt lat="36.509740" lon="-118.805590">
        <ele>627.508</ele>
        <time>2018-12-28T08:45:00Z</time>
      </trkpt>
      <trkpt lat="36.509710" lon="-118.805630">
        <ele>627.596</ele>
        <time>2018-12-28T08:45:20Z</time>
      </trkpt>
      <trkpt lat="36.509670" lon="-118.805650">
        <ele>627.134</ele>
        <time>2018-12-28T08:45:40Z</time>
      </trkpt>
      <trkpt lat="36.509650" lon="-118.805670">
        <ele>627.139</ele>
        <time>2018-12-28T08:46:00Z</time>
      </trkpt>
      <trkpt lat="36.509620" lon="-118.805680">
        <ele>626.819</ele>
        <time>2018-12-28T08:46:20Z</time>
      </trkpt>
      <trkpt lat="36.509570" lon="-118.805700">
        <ele>626.463</ele>
        <time>2018-12-28T08:46:40Z</time>
      </trkpt>
      <trkpt lat="36.509510" lon="-118.805720">
        <ele>626.076</ele>
        <time>2018-12-28T08:47:00Z</time>
      </trkpt>
      <trkpt lat="36.509480" lon="-118.805740">
        <ele>625.947</ele>
        <time>2018-12-28T08:47:20Z</time>
      </trkpt>
      <trkpt lat="36.509440" lon="-118.805760">
        <ele>625.680</ele>
        <time>2018-12-28T08:47:40Z</time>
      </trkpt>
      <trkpt lat="36.509400" lon="-118.805790">
        <ele>625.458</ele>
        <time>2018-12-28T08:48:00Z</time>
      </trkpt>
      <trkpt lat="36.509380" lon="-118.805810">
        <ele>625.352</ele>
        <time>2018-12-28T08:48:20Z</time>
      </trkpt>
      <trkpt lat="36.509360" lon="-118.805830">
        <ele>625.217</ele>
        <time>2018-12-28T08:48:40Z</time>
      </trkpt>
      <trkpt lat="36.509340" lon="-118.805850">
        <ele>625.108</ele>
        <time>2018-12-28T08:49:00Z</time>
      </trkpt>
      <trkpt lat="36.509330" lon="-118.805870">
        <ele>625.278</ele>
        <time>2018-12-28T08:49:20Z</time>
      </trkpt>
      <trkpt lat="36.509320" lon="-118.805900">
        <ele>625.336</ele>
        <time>2018-12-28T08:49:40Z</time>
      </trkpt>
      <trkpt lat="36.509310" lon="-118.805920">
        <ele>625.321</ele>
        <time>2018-12-28T08:50:00Z</time>
      </trkpt>
      <trkpt lat="36.509300" lon="-118.805950">
        <ele>625.431</ele>
        <time>2018-12-28T08:50:20Z</time>
      </trkpt>
      <trkpt lat="36.509300" lon="-118.805980">
        <ele>625.755</ele>
        <time>2018-12-28T08:50:40Z</time>
      </trkpt>
      <trkpt lat="36.509290" lon="-118.806020">
        <ele>625.558</ele>
        <time>2018-12-28T08:51:00Z</time>
      </trkpt>
      <trkpt lat="36.509290" lon="-118.806060">
        <ele>625.589</ele>
        <time>2018-12-28T08:51:20Z</time>
      </trkpt>
      <trkpt lat="36.509290" lon="-118.806100">
        <ele>625.512</ele>
        <time>2018-12-28T08:51:40Z</time>
      </trkpt>
      <trkpt lat="36.509300" lon="-118.806140">
        <ele>625.721</ele>
        <time>2018-12-28T08:52:00Z</time>
      </trkpt>
      <trkpt lat="36.509310" lon="-118.806190">
        <ele>626.041</ele>
        <time>2018-12-28T08:52:20Z</time>
      </trkpt>
      <trkpt lat="36.509330" lon="-118.806240">
        <ele>626.705</ele>
        <time>2018-12-28T08:52:40Z</time>
      </trkpt>
      <trkpt lat="36.509350" lon="-118.806290">
        <ele>627.208</ele>
        <time>2018-12-28T08:53:00Z</time>
      </trkpt>
      <trkpt lat="36.509370" lon="-118.806350">
        <ele>627.855</ele>
        <time>2018-12-28T08:53:20Z</time>
      </trkpt>
      <trkpt lat="36.509390" lon="-118.806410">
        <ele>628.313</ele>
        <time>2018-12-28T08:53:40Z</time>
      </trkpt>
      <trkpt lat="36.509400" lon="-118.806450">
        <ele>628.598</ele>
        <time>2018-12-28T08:54:00Z</time>
      </trkpt>
      <trkpt lat="36.509410" lon="-118.806490">
        <ele>628.858</ele>
        <time>2018-12-28T08:54:20Z</time>
      </trkpt>
      <trkpt lat="36.509410" lon="-118.806530">
        <ele>628.752</ele>
        <time>2018-12-28T08:54:40Z</time>
      </trkpt>
      <trkpt lat="36.509410" lon="-118.806560">
        <ele>628.845</ele>
        <time>2018-12-28T08:55:00Z</time>
      </trkpt>
      <trkpt lat="36.509410" lon="-118.806590">
        <ele>628.826</ele>
        <time>2018-12-28T08:55:20Z</time>
      </trkpt>
      <trkpt lat="36.509400" lon="-118.806620">
        <ele>628.659</ele>
        <time>2018-12-28T08:55:40Z</time>
      </trkpt>
      <trkpt lat="36.509400" lon="-118.806650">
        <ele>628.655</ele>
        <time>2018-12-28T08:56:00Z</time>
      </trkpt>
      <trkpt lat="36.509390" lon="-118.806680">
        <ele>628.407</ele>
        <time>2018-12-28T08:56:20Z</time>
      </trkpt>
      <trkpt lat="36.509380" lon="-118.806710">
        <ele>628.217</ele>
        <time>2018-12-28T08:56:40Z</time>
      </trkpt>
      <trkpt lat="36.509360" lon="-118.806750">
        <ele>627.908</ele>
        <time>2018-12-28T08:57:00Z</time>
      </trkpt>
      <trkpt lat="36.509340" lon="-118.806800">
        <ele>627.768</ele>
        <time>2018-12-28T08:57:20Z</time>
      </trkpt>
      <trkpt lat="36.509320" lon="-118.806830">
        <ele>627.736</ele>
        <time>2018-12-28T08:57:40Z</time>
      </trkpt>
      <trkpt lat="36.509290" lon="-118.806860">
        <ele>627.791</ele>
        <time>2018-12-28T08:58:00Z</time>
      </trkpt>
      <trkpt lat="36.509250" lon="-118.806900">
        <ele>627.671</ele>
        <time>2018-12-28T08:58:20Z</time>
      </trkpt>
      <trkpt lat="36.509220" lon="-118.806930">
        <ele>627.645</ele>
        <time>2018-12-28T08:58:40Z</time>
      </trkpt>
      <trkpt lat="36.509150" lon="-118.806990">
        <ele>627.368</ele>
        <time>2018-12-28T08:59:00Z</time>
      </trkpt>
      <trkpt lat="36.509070" lon="-118.807050">
        <ele>626.839</ele>
        <time>2018-12-28T08:59:20Z</time>
      </trkpt>
      <trkpt lat="36.509030" lon="-118.807100">
        <ele>626.832</ele>
        <time>2018-12-28T08:59:40Z</time>
      </trkpt>
      <trkpt lat="36.509000" lon="-118.807130">
        <ele>626.723</ele>
        <time>2018-12-28T09:00:00Z</time>
      </trkpt>
      <trkpt lat="36.508970" lon="-118.807170">
        <ele>626.783</ele>
        <time>2018-12-28T09:00:20Z</time>
      </trkpt>
      <trkpt lat="36.508950" lon="-118.807200">
        <ele>626.711</ele>
        <time>2018-12-28T09:00:40Z</time>
      </trkpt>
      <trkpt lat="36.508930" lon="-118.807250">
        <ele>627.008</ele>
        <time>2018-12-28T09:01:00Z</time>
      </trkpt>
      <trkpt lat="36.508910" lon="-118.807290">
        <ele>627.245</ele>
        <time>2018-12-28T09:01:20Z</time>
      </trkpt>
      <trkpt lat="36.508880" lon="-118.807370">
        <ele>627.893</ele>
        <time>2018-12-28T09:01:40Z</time>
      </trkpt>
      <trkpt lat="36.508850" lon="-118.807430">
        <ele>628.178</ele>
        <time>2018-12-28T09:02:00Z</time>
      </trkpt>
      <trkpt lat="36.508820" lon="-118.807490">
        <ele>628.488</ele>
        <time>2018-12-28T09:02:20Z</time>
      </trkpt>
      <trkpt lat="36.508780" lon="-118.807540">
        <ele>628.542</ele>
        <time>2018-12-28T09:02:40Z</time>
      </trkpt>
      <trkpt lat="36.508750" lon="-118.807580">
        <ele>628.745</ele>
        <time>2018-12-28T09:03:00Z</time>
      </trkpt>
      <trkpt lat="36.508700" lon="-118.807610">
        <ele>628.496</ele>
        <time>2018-12-28T09:03:20Z</time>
      </trkpt>
      <trkpt lat="36.508670" lon="-118.807640">
        <ele>628.479</ele>
        <time>2018-12-28T09:03:40Z</time>
      </trkpt>
      <trkpt lat="36.508620" lon="-118.807670">
        <ele>628.087</ele>
        <time>2018-12-28T09:04:00Z</time>
      </trkpt>
      <trkpt lat="36.508580" lon="-118.807710">
        <ele>627.842</ele>
        <time>2018-12-28T09:04:20Z</time>
      </trkpt>
      <trkpt lat="36.508560" lon="-118.807740">
        <ele>627.826</ele>
        <time>2018-12-28T09:04:40Z</time>
      </trkpt>
      <trkpt lat="36.508530" lon="-118.807780">
        <ele>627.708</ele>
        <time>2018-12-28T09:05:00Z</time>
      </trkpt>
      <trkpt lat="36.508500" lon="-118.807830">
        <ele>627.651</ele>
        <time>2018-12-28T09:05:20Z</time>
      </trkpt>
      <trkpt lat="36.508480" lon="-118.807870">
        <ele>627.539</ele>
        <time>2018-12-28T09:05:40Z</time>
      </trkpt>
      <trkpt lat="36.508450" lon="-118.807930">
        <ele>627.444</ele>
        <time>2018-12-28T09:06:00Z</time>
      </trkpt>
      <trkpt lat="36.508440" lon="-118.807970">
        <ele>627.584</ele>
        <time>2018-12-28T09:06:20Z</time>
      </trkpt>
      <trkpt lat="36.508420" lon="-118.808020">
        <ele>627.558</ele>
        <time>2018-12-28T09:06:40Z</time>
      </trkpt>
      <trkpt lat="36.508400" lon="-118.808080">
        <ele>627.521</ele>
        <time>2018-12-28T09:07:00Z</time>
      </trkpt>
      <trkpt lat="36.508380" lon="-118.808160">
        <ele>627.812</ele>
        <time>2018-12-28T09:07:20Z</time>
      </trkpt>
      <trkpt lat="36.508360" lon="-118.808240">
        <ele>628.425</ele>
        <time>2018-12-28T09:07:40Z</time>
      </trkpt>
      <trkpt lat="36.508340" lon="-118.808310">
        <ele>629.311</ele>
        <time>2018-12-28T09:08:00Z</time>
      </trkpt>
      <trkpt lat="36.508320" lon="-118.808360">
        <ele>630.021</ele>
        <time>2018-12-28T09:08:20Z</time>
      </trkpt>
      <trkpt lat="36.508300" lon="-118.808400">
        <ele>630.703</ele>
        <time>2018-12-28T09:08:40Z</time>
      </trkpt>
      <trkpt lat="36.508280" lon="-118.808430">
        <ele>631.208</ele>
        <time>2018-12-28T09:09:00Z</time>
      </trkpt>
      <trkpt lat="36.508250" lon="-118.808470">
        <ele>632.094</ele>
        <time>2018-12-28T09:09:20Z</time>
      </trkpt>
      <trkpt lat="36.508210" lon="-118.808500">
        <ele>632.872</ele>
        <time>2018-12-28T09:09:40Z</time>
      </trkpt>
      <trkpt lat="36.508180" lon="-118.808520">
        <ele>633.357</ele>
        <time>2018-12-28T09:10:00Z</time>
      </trkpt>
      <trkpt lat="36.508150" lon="-118.808530">
        <ele>633.557</ele>
        <time>2018-12-28T09:10:20Z</time>
      </trkpt>
      <trkpt lat="36.508110" lon="-118.808550">
        <ele>633.961</ele>
        <time>2018-12-28T09:10:40Z</time>
      </trkpt>
      <trkpt lat="36.508080" lon="-118.808560">
        <ele>634.134</ele>
        <time>2018-12-28T09:11:00Z</time>
      </trkpt>
      <trkpt lat="36.508040" lon="-118.808560">
        <ele>633.915</ele>
        <time>2018-12-28T09:11:20Z</time>
      </trkpt>
      <trkpt lat="36.508010" lon="-118.808560">
        <ele>633.768</ele>
        <time>2018-12-28T09:11:40Z</time>
      </trkpt>
      <trkpt lat="36.507970" lon="-118.808550">
        <ele>633.259</ele>
        <time>2018-12-28T09:12:00Z</time>
      </trkpt>
      <trkpt lat="36.507930" lon="-118.808540">
        <ele>632.803</ele>
        <time>2018-12-28T09:12:20Z</time>
      </trkpt>
      <trkpt lat="36.507850" lon="-118.808520">
        <ele>631.423</ele>
        <time>2018-12-28T09:12:40Z</time>
      </trkpt>
      <trkpt lat="36.507810" lon="-118.808510">
        <ele>630.708</ele>
        <time>2018-12-28T09:13:00Z</time>
      </trkpt>
      <trkpt lat="36.507780" lon="-118.808500">
        <ele>630.018</ele>
        <time>2018-12-28T09:13:20Z</time>
      </trkpt>
      <trkpt lat="36.507740" lon="-118.808490">
        <ele>629.356</ele>
        <time>2018-12-28T09:13:40Z</time>
      </trkpt>
      <trkpt lat="36.507700" lon="-118.808490">
        <ele>628.931</ele>
        <time>2018-12-28T09:14:00Z</time>
      </trkpt>
      <trkpt lat="36.507680" lon="-118.808490">
        <ele>628.681</ele>
        <time>2018-12-28T09:14:20Z</time>
      </trkpt>
      <trkpt lat="36.507660" lon="-118.808490">
        <ele>628.495</ele>
        <time>2018-12-28T09:14:40Z</time>
      </trkpt>
      <trkpt lat="36.507640" lon="-118.808490">
        <ele>628.258</ele>
        <time>2018-12-28T09:15:00Z</time>
      </trkpt>
      <trkpt lat="36.507610" lon="-118.808500">
        <ele>627.869</ele>
        <time>2018-12-28T09:15:20Z</time>
      </trkpt>
      <trkpt lat="36.507590" lon="-118.808510">
        <ele>627.632</ele>
        <time>2018-12-28T09:15:40Z</time>
      </trkpt>
      <trkpt lat="36.507570" lon="-118.808520">
        <ele>627.446</ele>
        <time>2018-12-28T09:16:00Z</time>
      </trkpt>
      <trkpt lat="36.507540" lon="-118.808530">
        <ele>626.988</ele>
        <time>2018-12-28T09:16:20Z</time>
      </trkpt>
      <trkpt lat="36.507520" lon="-118.808550">
        <ele>626.916</ele>
        <time>2018-12-28T09:16:40Z</time>
      </trkpt>
      <trkpt lat="36.507500" lon="-118.808560">
        <ele>626.708</ele>
        <time>2018-12-28T09:17:00Z</time>
      </trkpt>
      <trkpt lat="36.507480" lon="-118.808580">
        <ele>626.717</ele>
        <time>2018-12-28T09:17:20Z</time>
      </trkpt>
      <trkpt lat="36.507460" lon="-118.808610">
        <ele>626.855</ele>
        <time>2018-12-28T09:17:40Z</time>
      </trkpt>
      <trkpt lat="36.507450" lon="-118.808630">
        <ele>627.180</ele>
        <time>2018-12-28T09:18:00Z</time>
      </trkpt>
      <trkpt lat="36.507430" lon="-118.808650">
        <ele>627.090</ele>
        <time>2018-12-28T09:18:20Z</time>
      </trkpt>
      <trkpt lat="36.507420" lon="-118.808690">
        <ele>627.664</ele>
        <time>2018-12-28T09:18:40Z</time>
      </trkpt>
      <trkpt lat="36.507400" lon="-118.808730">
        <ele>627.957</ele>
        <time>2018-12-28T09:19:00Z</time>
      </trkpt>
      <trkpt lat="36.507390" lon="-118.808770">
        <ele>628.338</ele>
        <time>2018-12-28T09:19:20Z</time>
      </trkpt>
      <trkpt lat="36.507390" lon="-118.808810">
        <ele>628.931</ele>
        <time>2018-12-28T09:19:40Z</time>
      </trkpt>
      <trkpt lat="36.507390" lon="-118.808840">
        <ele>629.351</ele>
        <time>2018-12-28T09:20:00Z</time>
      </trkpt>
      <trkpt lat="36.507380" lon="-118.808880">
        <ele>629.501</ele>
        <time>2018-12-28T09:20:20Z</time>
      </trkpt>
      <trkpt lat="36.507370" lon="-118.808930">
        <ele>629.911</ele>
        <time>2018-12-28T09:20:40Z</time>
      </trkpt>
      <trkpt lat="36.507370" lon="-118.808990">
        <ele>630.708</ele>
        <time>2018-12-28T09:21:00Z</time>
      </trkpt>
      <trkpt lat="36.507360" lon="-118.809040">
        <ele>631.058</ele>
        <time>2018-12-28T09:21:20Z</time>
      </trkpt>
      <trkpt lat="36.507350" lon="-118.809090">
        <ele>631.166</ele>
        <time>2018-12-28T09:21:40Z</time>
      </trkpt>
      <trkpt lat="36.507340" lon="-118.809130">
        <ele>631.151</ele>
        <time>2018-12-28T09:22:00Z</time>
      </trkpt>
      <trkpt lat="36.507320" lon="-118.809160">
        <ele>630.941</ele>
        <time>2018-12-28T09:22:20Z</time>
      </trkpt>
      <trkpt lat="36.507310" lon="-118.809180">
        <ele>630.925</ele>
        <time>2018-12-28T09:22:40Z</time>
      </trkpt>
      <trkpt lat="36.507300" lon="-118.809200">
        <ele>630.938</ele>
        <time>2018-12-28T09:23:00Z</time>
      </trkpt>
      <trkpt lat="36.507290" lon="-118.809210">
        <ele>630.929</ele>
        <time>2018-12-28T09:23:20Z</time>
      </trkpt>
      <trkpt lat="36.507270" lon="-118.809230">
        <ele>630.872</ele>
        <time>2018-12-28T09:23:40Z</time>
      </trkpt>
      <trkpt lat="36.507260" lon="-118.809250">
        <ele>630.949</ele>
        <time>2018-12-28T09:24:00Z</time>
      </trkpt>
      <trkpt lat="36.507240" lon="-118.809260">
        <ele>630.702</ele>
        <time>2018-12-28T09:24:20Z</time>
      </trkpt>
      <trkpt lat="36.507220" lon="-118.809270">
        <ele>630.622</ele>
        <time>2018-12-28T09:24:40Z</time>
      </trkpt>
      <trkpt lat="36.507190" lon="-118.809290">
        <ele>630.608</ele>
        <time>2018-12-28T09:25:00Z</time>
      </trkpt>
      <trkpt lat="36.507160" lon="-118.809300">
        <ele>630.437</ele>
        <time>2018-12-28T09:25:20Z</time>
      </trkpt>
      <trkpt lat="36.507130" lon="-118.809310">
        <ele>630.455</ele>
        <time>2018-12-28T09:25:40Z</time>
      </trkpt>
      <trkpt lat="36.507100" lon="-118.809310">
        <ele>630.120</ele>
        <time>2018-12-28T09:26:00Z</time>
      </trkpt>
      <trkpt lat="36.507040" lon="-118.809320">
        <ele>629.970</ele>
        <time>2018-12-28T09:26:20Z</time>
      </trkpt>
      <trkpt lat="36.506980" lon="-118.809330">
        <ele>629.834</ele>
        <time>2018-12-28T09:26:40Z</time>
      </trkpt>
      <trkpt lat="36.506770" lon="-118.809340">
        <ele>628.637</ele>
        <time>2018-12-28T09:27:00Z</time>
      </trkpt>
      <trkpt lat="36.506670" lon="-118.809350">
        <ele>627.838</ele>
        <time>2018-12-28T09:27:20Z</time>
      </trkpt>
      <trkpt lat="36.506640" lon="-118.809350">
        <ele>627.581</ele>
        <time>2018-12-28T09:27:40Z</time>
      </trkpt>
      <trkpt lat="36.506520" lon="-118.809370">
        <ele>626.549</ele>
        <time>2018-12-28T09:28:00Z</time>
      </trkpt>
      <trkpt lat="36.506480" lon="-118.809380">
        <ele>625.602</ele>
        <time>2018-12-28T09:28:20Z</time>
      </trkpt>
      <trkpt lat="36.506430" lon="-118.809400">
        <ele>624.622</ele>
        <time>2018-12-28T09:28:40Z</time>
      </trkpt>
      <trkpt lat="36.506390" lon="-118.809410">
        <ele>623.608</ele>
        <time>2018-12-28T09:29:00Z</time>
      </trkpt>
      <trkpt lat="36.506350" lon="-118.809430">
        <ele>622.897</ele>
        <time>2018-12-28T09:29:20Z</time>
      </trkpt>
      <trkpt lat="36.506300" lon="-118.809460">
        <ele>621.825</ele>
        <time>2018-12-28T09:29:40Z</time>
      </trkpt>
      <trkpt lat="36.506260" lon="-118.809490">
        <ele>621.090</ele>
        <time>2018-12-28T09:30:00Z</time>
      </trkpt>
      <trkpt lat="36.506210" lon="-118.809520">
        <ele>620.220</ele>
        <time>2018-12-28T09:30:20Z</time>
      </trkpt>
      <trkpt lat="36.506160" lon="-118.809580">
        <ele>620.074</ele>
        <time>2018-12-28T09:30:40Z</time>
      </trkpt>
      <trkpt lat="36.506110" lon="-118.809630">
        <ele>619.877</ele>
        <time>2018-12-28T09:31:00Z</time>
      </trkpt>
      <trkpt lat="36.506060" lon="-118.809680">
        <ele>619.688</ele>
        <time>2018-12-28T09:31:20Z</time>
      </trkpt>
      <trkpt lat="36.506020" lon="-118.809720">
        <ele>619.491</ele>
        <time>2018-12-28T09:31:40Z</time>
      </trkpt>
      <trkpt lat="36.505970" lon="-118.809740">
        <ele>618.657</ele>
        <time>2018-12-28T09:32:00Z</time>
      </trkpt>
      <trkpt lat="36.505910" lon="-118.809780">
        <ele>619.200</ele>
        <time>2018-12-28T09:32:20Z</time>
      </trkpt>
      <trkpt lat="36.505870" lon="-118.809800">
        <ele>619.520</ele>
        <time>2018-12-28T09:32:40Z</time>
      </trkpt>
      <trkpt lat="36.505810" lon="-118.809820">
        <ele>619.808</ele>
        <time>2018-12-28T09:33:00Z</time>
      </trkpt>
      <trkpt lat="36.505730" lon="-118.809850">
        <ele>620.418</ele>
        <time>2018-12-28T09:33:20Z</time>
      </trkpt>
      <trkpt lat="36.505670" lon="-118.809870">
        <ele>620.956</ele>
        <time>2018-12-28T09:33:40Z</time>
      </trkpt>
      <trkpt lat="36.505590" lon="-118.809900">
        <ele>621.221</ele>
        <time>2018-12-28T09:34:00Z</time>
      </trkpt>
      <trkpt lat="36.505530" lon="-118.809910">
        <ele>621.021</ele>
        <time>2018-12-28T09:34:20Z</time>
      </trkpt>
      <trkpt lat="36.505480" lon="-118.809930">
        <ele>621.365</ele>
        <time>2018-12-28T09:34:40Z</time>
      </trkpt>
      <trkpt lat="36.505440" lon="-118.809950">
        <ele>621.618</ele>
        <time>2018-12-28T09:35:00Z</time>
      </trkpt>
      <trkpt lat="36.505390" lon="-118.809970">
        <ele>621.759</ele>
        <time>2018-12-28T09:35:20Z</time>
      </trkpt>
      <trkpt lat="36.505350" lon="-118.809990">
        <ele>621.632</ele>
        <time>2018-12-28T09:35:40Z</time>
      </trkpt>
      <trkpt lat="36.505300" lon="-118.810010">
        <ele>621.398</ele>
        <time>2018-12-28T09:36:00Z</time>
      </trkpt>
      <trkpt lat="36.505260" lon="-118.810040">
        <ele>621.515</ele>
        <time>2018-12-28T09:36:20Z</time>
      </trkpt>
      <trkpt lat="36.505210" lon="-118.810080">
        <ele>621.626</ele>
        <time>2018-12-28T09:36:40Z</time>
      </trkpt>
      <trkpt lat="36.505150" lon="-118.810120">
        <ele>621.408</ele>
        <time>2018-12-28T09:37:00Z</time>
      </trkpt>
      <trkpt lat="36.505110" lon="-118.810150">
        <ele>621.412</ele>
        <time>2018-12-28T09:37:20Z</time>
      </trkpt>
      <trkpt lat="36.505060" lon="-118.810190">
        <ele>621.870</ele>
        <time>2018-12-28T09:37:40Z</time>
      </trkpt>
      <trkpt lat="36.505030" lon="-118.810210">
        <ele>621.695</ele>
        <time>2018-12-28T09:38:00Z</time>
      </trkpt>
      <trkpt lat="36.505000" lon="-118.810220">
        <ele>621.015</ele>
        <time>2018-12-28T09:38:20Z</time>
      </trkpt>
      <trkpt lat="36.504970" lon="-118.810240">
        <ele>620.649</ele>
        <time>2018-12-28T09:38:40Z</time>
      </trkpt>
      <trkpt lat="36.504910" lon="-118.810270">
        <ele>619.382</ele>
        <time>2018-12-28T09:39:00Z</time>
      </trkpt>
      <trkpt lat="36.504870" lon="-118.810280">
        <ele>618.053</ele>
        <time>2018-12-28T09:39:20Z</time>
      </trkpt>
      <trkpt lat="36.504840" lon="-118.810280">
        <ele>617.656</ele>
        <time>2018-12-28T09:39:40Z</time>
      </trkpt>
      <trkpt lat="36.504800" lon="-118.810290">
        <ele>617.758</ele>
        <time>2018-12-28T09:40:00Z</time>
      </trkpt>
      <trkpt lat="36.504770" lon="-118.810290">
        <ele>617.752</ele>
        <time>2018-12-28T09:40:20Z</time>
      </trkpt>
      <trkpt lat="36.504730" lon="-118.810280">
        <ele>617.417</ele>
        <time>2018-12-28T09:40:40Z</time>
      </trkpt>
      <trkpt lat="36.504700" lon="-118.810270">
        <ele>617.208</ele>
        <time>2018-12-28T09:41:00Z</time>
      </trkpt>
      <trkpt lat="36.504660" lon="-118.810260">
        <ele>616.928</ele>
        <time>2018-12-28T09:41:20Z</time>
      </trkpt>
      <trkpt lat="36.504600" lon="-118.810230">
        <ele>616.186</ele>
        <time>2018-12-28T09:41:40Z</time>
      </trkpt>
      <trkpt lat="36.504560" lon="-118.810210">
        <ele>616.191</ele>
        <time>2018-12-28T09:42:00Z</time>
      </trkpt>
      <trkpt lat="36.504480" lon="-118.810160">
        <ele>616.281</ele>
        <time>2018-12-28T09:42:20Z</time>
      </trkpt>
      <trkpt lat="36.504430" lon="-118.810130">
        <ele>616.215</ele>
        <time>2018-12-28T09:42:40Z</time>
      </trkpt>
      <trkpt lat="36.504400" lon="-118.810110">
        <ele>616.188</ele>
        <time>2018-12-28T09:43:00Z</time>
      </trkpt>
      <trkpt lat="36.504360" lon="-118.810100">
        <ele>616.449</ele>
        <time>2018-12-28T09:43:20Z</time>
      </trkpt>
      <trkpt lat="36.504320" lon="-118.810090">
        <ele>616.772</ele>
        <time>2018-12-28T09:43:40Z</time>
      </trkpt>
      <trkpt lat="36.504290" lon="-118.810080">
        <ele>616.625</ele>
        <time>2018-12-28T09:44:00Z</time>
      </trkpt>
      <trkpt lat="36.504250" lon="-118.810080">
        <ele>616.626</ele>
        <time>2018-12-28T09:44:20Z</time>
      </trkpt>
      <trkpt lat="36.504210" lon="-118.810080">
        <ele>616.508</ele>
        <time>2018-12-28T09:44:40Z</time>
      </trkpt>
      <trkpt lat="36.504170" lon="-118.810080">
        <ele>616.508</ele>
        <time>2018-12-28T09:45:00Z</time>
      </trkpt>
      <trkpt lat="36.504120" lon="-118.810080">
        <ele>616.435</ele>
        <time>2018-12-28T09:45:20Z</time>
      </trkpt>
      <trkpt lat="36.504080" lon="-118.810090">
        <ele>616.743</ele>
        <time>2018-12-28T09:45:40Z</time>
      </trkpt>
      <trkpt lat="36.504020" lon="-118.810100">
        <ele>617.038</ele>
        <time>2018-12-28T09:46:00Z</time>
      </trkpt>
      <trkpt lat="36.503980" lon="-118.810110">
        <ele>617.388</ele>
        <time>2018-12-28T09:46:20Z</time>
      </trkpt>
      <trkpt lat="36.503860" lon="-118.810140">
        <ele>617.952</ele>
        <time>2018-12-28T09:46:40Z</time>
      </trkpt>
      <trkpt lat="36.503730" lon="-118.810180">
        <ele>619.075</ele>
        <time>2018-12-28T09:47:00Z</time>
      </trkpt>
      <trkpt lat="36.503680" lon="-118.810200">
        <ele>619.626</ele>
        <time>2018-12-28T09:47:20Z</time>
      </trkpt>
      <trkpt lat="36.503630" lon="-118.810210">
        <ele>619.919</ele>
        <time>2018-12-28T09:47:40Z</time>
      </trkpt>
      <trkpt lat="36.503550" lon="-118.810230">
        <ele>620.219</ele>
        <time>2018-12-28T09:48:00Z</time>
      </trkpt>
      <trkpt lat="36.503490" lon="-118.810250">
        <ele>620.509</ele>
        <time>2018-12-28T09:48:20Z</time>
      </trkpt>
      <trkpt lat="36.503380" lon="-118.810270">
        <ele>620.119</ele>
        <time>2018-12-28T09:48:40Z</time>
      </trkpt>
      <trkpt lat="36.503350" lon="-118.810280">
        <ele>620.008</ele>
        <time>2018-12-28T09:49:00Z</time>
      </trkpt>
      <trkpt lat="36.503320" lon="-118.810290">
        <ele>619.964</ele>
        <time>2018-12-28T09:49:20Z</time>
      </trkpt>
      <trkpt lat="36.503300" lon="-118.810310">
        <ele>620.162</ele>
        <time>2018-12-28T09:49:40Z</time>
      </trkpt>
      <trkpt lat="36.503260" lon="-118.810330">
        <ele>620.177</ele>
        <time>2018-12-28T09:50:00Z</time>
      </trkpt>
      <trkpt lat="36.503240" lon="-118.810350">
        <ele>620.257</ele>
        <time>2018-12-28T09:50:20Z</time>
      </trkpt>
      <trkpt lat="36.503210" lon="-118.810380">
        <ele>620.561</ele>
        <time>2018-12-28T09:50:40Z</time>
      </trkpt>
      <trkpt lat="36.503190" lon="-118.810410">
        <ele>620.754</ele>
        <time>2018-12-28T09:51:00Z</time>
      </trkpt>
      <trkpt lat="36.503160" lon="-118.810450">
        <ele>620.315</ele>
        <time>2018-12-28T09:51:20Z</time>
      </trkpt>
      <trkpt lat="36.503130" lon="-118.810500">
        <ele>620.048</ele>
        <time>2018-12-28T09:51:40Z</time>
      </trkpt>
      <trkpt lat="36.503110" lon="-118.810550">
        <ele>620.216</ele>
        <time>2018-12-28T09:52:00Z</time>
      </trkpt>
      <trkpt lat="36.503090" lon="-118.810600">
        <ele>620.376</ele>
        <time>2018-12-28T09:52:20Z</time>
      </trkpt>
      <trkpt lat="36.503040" lon="-118.810720">
        <ele>620.213</ele>
        <time>2018-12-28T09:52:40Z</time>
      </trkpt>
      <trkpt lat="36.503030" lon="-118.810780">
        <ele>620.308</ele>
        <time>2018-12-28T09:53:00Z</time>
      </trkpt>
      <trkpt lat="36.503010" lon="-118.810840">
        <ele>620.164</ele>
        <time>2018-12-28T09:53:20Z</time>
      </trkpt>
      <trkpt lat="36.503000" lon="-118.810890">
        <ele>620.152</ele>
        <time>2018-12-28T09:53:40Z</time>
      </trkpt>
      <trkpt lat="36.503000" lon="-118.810940">
        <ele>620.527</ele>
        <time>2018-12-28T09:54:00Z</time>
      </trkpt>
      <trkpt lat="36.502990" lon="-118.811000">
        <ele>620.467</ele>
        <time>2018-12-28T09:54:20Z</time>
      </trkpt>
      <trkpt lat="36.502990" lon="-118.811070">
        <ele>620.661</ele>
        <time>2018-12-28T09:54:40Z</time>
      </trkpt>
      <trkpt lat="36.502990" lon="-118.811130">
        <ele>620.884</ele>
        <time>2018-12-28T09:55:00Z</time>
      </trkpt>
      <trkpt lat="36.503000" lon="-118.811200">
        <ele>621.465</ele>
        <time>2018-12-28T09:55:20Z</time>
      </trkpt>
      <trkpt lat="36.503000" lon="-118.811260">
        <ele>621.568</ele>
        <time>2018-12-28T09:55:40Z</time>
      </trkpt>
      <trkpt lat="36.503010" lon="-118.811330">
        <ele>621.028</ele>
        <time>2018-12-28T09:56:00Z</time>
      </trkpt>
      <trkpt lat="36.503010" lon="-118.811380">
        <ele>620.489</ele>
        <time>2018-12-28T09:56:20Z</time>
      </trkpt>
      <trkpt lat="36.503010" lon="-118.811440">
        <ele>619.617</ele>
        <time>2018-12-28T09:56:40Z</time>
      </trkpt>
      <trkpt lat="36.503000" lon="-118.811500">
        <ele>618.208</ele>
        <time>2018-12-28T09:57:00Z</time>
      </trkpt>
      <trkpt lat="36.503000" lon="-118.811530">
        <ele>617.865</ele>
        <time>2018-12-28T09:57:20Z</time>
      </trkpt>
      <trkpt lat="36.502990" lon="-118.811580">
        <ele>617.273</ele>
        <time>2018-12-28T09:57:40Z</time>
      </trkpt>
      <trkpt lat="36.502980" lon="-118.811680">
        <ele>616.778</ele>
        <time>2018-12-28T09:58:00Z</time>
      </trkpt>
      <trkpt lat="36.502970" lon="-118.811740">
        <ele>616.298</ele>
        <time>2018-12-28T09:58:20Z</time>
      </trkpt>
      <trkpt lat="36.502960" lon="-118.811790">
        <ele>615.772</ele>
        <time>2018-12-28T09:58:40Z</time>
      </trkpt>
      <trkpt lat="36.502940" lon="-118.811860">
        <ele>615.545</ele>
        <time>2018-12-28T09:59:00Z</time>
      </trkpt>
      <trkpt lat="36.502920" lon="-118.811910">
        <ele>615.196</ele>
        <time>2018-12-28T09:59:20Z</time>
      </trkpt>
      <trkpt lat="36.502900" lon="-118.811960">
        <ele>615.599</ele>
        <time>2018-12-28T09:59:40Z</time>
      </trkpt>
      <trkpt lat="36.502870" lon="-118.812010">
        <ele>615.972</ele>
        <time>2018-12-28T10:00:00Z</time>
      </trkpt>
      <trkpt lat="36.502840" lon="-118.812060">
        <ele>616.213</ele>
        <time>2018-12-28T10:00:20Z</time>
      </trkpt>
      <trkpt lat="36.502810" lon="-118.812110">
        <ele>617.114</ele>
        <time>2018-12-28T10:00:40Z</time>
      </trkpt>
      <trkpt lat="36.502780" lon="-118.812140">
        <ele>617.508</ele>
        <time>2018-12-28T10:01:00Z</time>
      </trkpt>
      <trkpt lat="36.502750" lon="-118.812170">
        <ele>617.660</ele>
        <time>2018-12-28T10:01:20Z</time>
      </trkpt>
      <trkpt lat="36.502720" lon="-118.812200">
        <ele>617.528</ele>
        <time>2018-12-28T10:01:40Z</time>
      </trkpt>
      <trkpt lat="36.502690" lon="-118.812220">
        <ele>617.043</ele>
        <time>2018-12-28T10:02:00Z</time>
      </trkpt>
      <trkpt lat="36.502680" lon="-118.812220">
        <ele>616.663</ele>
        <time>2018-12-28T10:02:20Z</time>
      </trkpt>
      <trkpt lat="36.502650" lon="-118.812230">
        <ele>615.797</ele>
        <time>2018-12-28T10:02:40Z</time>
      </trkpt>
      <trkpt lat="36.502610" lon="-118.812250">
        <ele>615.330</ele>
        <time>2018-12-28T10:03:00Z</time>
      </trkpt>
      <trkpt lat="36.502570" lon="-118.812260">
        <ele>615.111</ele>
        <time>2018-12-28T10:03:20Z</time>
      </trkpt>
      <trkpt lat="36.502530" lon="-118.812260">
        <ele>614.744</ele>
        <time>2018-12-28T10:03:40Z</time>
      </trkpt>
      <trkpt lat="36.502500" lon="-118.812250">
        <ele>614.271</ele>
        <time>2018-12-28T10:04:00Z</time>
      </trkpt>
      <trkpt lat="36.502460" lon="-118.812240">
        <ele>613.741</ele>
        <time>2018-12-28T10:04:20Z</time>
      </trkpt>
      <trkpt lat="36.502420" lon="-118.812220">
        <ele>613.015</ele>
        <time>2018-12-28T10:04:40Z</time>
      </trkpt>
      <trkpt lat="36.502380" lon="-118.812200">
        <ele>612.308</ele>
        <time>2018-12-28T10:05:00Z</time>
      </trkpt>
      <trkpt lat="36.502360" lon="-118.812190">
        <ele>611.990</ele>
        <time>2018-12-28T10:05:20Z</time>
      </trkpt>
      <trkpt lat="36.502330" lon="-118.812180">
        <ele>611.228</ele>
        <time>2018-12-28T10:05:40Z</time>
      </trkpt>
      <trkpt lat="36.502300" lon="-118.812160">
        <ele>610.473</ele>
        <time>2018-12-28T10:06:00Z</time>
      </trkpt>
      <trkpt lat="36.502270" lon="-118.812150">
        <ele>609.823</ele>
        <time>2018-12-28T10:06:20Z</time>
      </trkpt>
      <trkpt lat="36.502240" lon="-118.812140">
        <ele>609.117</ele>
        <time>2018-12-28T10:06:40Z</time>
      </trkpt>
      <trkpt lat="36.502220" lon="-118.812140">
        <ele>608.840</ele>
        <time>2018-12-28T10:07:00Z</time>
      </trkpt>
      <trkpt lat="36.502190" lon="-118.812140">
        <ele>608.391</ele>
        <time>2018-12-28T10:07:20Z</time>
      </trkpt>
      <trkpt lat="36.502170" lon="-118.812140">
        <ele>608.064</ele>
        <time>2018-12-28T10:07:40Z</time>
      </trkpt>
      <trkpt lat="36.502150" lon="-118.812150">
        <ele>607.842</ele>
        <time>2018-12-28T10:08:00Z</time>
      </trkpt>
      <trkpt lat="36.502130" lon="-118.812160">
        <ele>607.722</ele>
        <time>2018-12-28T10:08:20Z</time>
      </trkpt>
      <trkpt lat="36.502100" lon="-118.812170">
        <ele>607.414</ele>
        <time>2018-12-28T10:08:40Z</time>
      </trkpt>
      <trkpt lat="36.502080" lon="-118.812190">
        <ele>607.408</ele>
        <time>2018-12-28T10:09:00Z</time>
      </trkpt>
      <trkpt lat="36.502050" lon="-118.812210">
        <ele>607.017</ele>
        <time>2018-12-28T10:09:20Z</time>
      </trkpt>
      <trkpt lat="36.502020" lon="-118.812220">
        <ele>606.555</ele>
        <time>2018-12-28T10:09:40Z</time>
      </trkpt>
      <trkpt lat="36.501990" lon="-118.812240">
        <ele>606.140</ele>
        <time>2018-12-28T10:10:00Z</time>
      </trkpt>
      <trkpt lat="36.501970" lon="-118.812250">
        <ele>605.930</ele>
        <time>2018-12-28T10:10:20Z</time>
      </trkpt>
      <trkpt lat="36.501940" lon="-118.812270">
        <ele>605.584</ele>
        <time>2018-12-28T10:10:40Z</time>
      </trkpt>
      <trkpt lat="36.501910" lon="-118.812280">
        <ele>605.047</ele>
        <time>2018-12-28T10:11:00Z</time>
      </trkpt>
      <trkpt lat="36.501880" lon="-118.812290">
        <ele>604.528</ele>
        <time>2018-12-28T10:11:20Z</time>
      </trkpt>
      <trkpt lat="36.501450" lon="-118.812350">
        <ele>594.921</ele>
        <time>2018-12-28T10:11:40Z</time>
      </trkpt>
      <trkpt lat="36.501210" lon="-118.812390">
        <ele>594.348</ele>
        <time>2018-12-28T10:12:00Z</time>
      </trkpt>
      <trkpt lat="36.501080" lon="-118.812410">
        <ele>594.361</ele>
        <time>2018-12-28T10:12:20Z</time>
      </trkpt>
      <trkpt lat="36.501000" lon="-118.812430">
        <ele>594.317</ele>
        <time>2018-12-28T10:12:40Z</time>
      </trkpt>
      <trkpt lat="36.500960" lon="-118.812430">
        <ele>594.108</ele>
        <time>2018-12-28T10:13:00Z</time>
      </trkpt>
      <trkpt lat="36.500940" lon="-118.812440">
        <ele>594.397</ele>
        <time>2018-12-28T10:13:20Z</time>
      </trkpt>
      <trkpt lat="36.500910" lon="-118.812450">
        <ele>594.585</ele>
        <time>2018-12-28T10:13:40Z</time>
      </trkpt>
      <trkpt lat="36.500890" lon="-118.812460">
        <ele>594.790</ele>
        <time>2018-12-28T10:14:00Z</time>
      </trkpt>
      <trkpt lat="36.500870" lon="-118.812470">
        <ele>594.820</ele>
        <time>2018-12-28T10:14:20Z</time>
      </trkpt>
      <trkpt lat="36.500850" lon="-118.812490">
        <ele>595.114</ele>
        <time>2018-12-28T10:14:40Z</time>
      </trkpt>
      <trkpt lat="36.500840" lon="-118.812500">
        <ele>595.297</ele>
        <time>2018-12-28T10:15:00Z</time>
      </trkpt>
      <trkpt lat="36.500820" lon="-118.812520">
        <ele>595.328</ele>
        <time>2018-12-28T10:15:20Z</time>
      </trkpt>
      <trkpt lat="36.500810" lon="-118.812540">
        <ele>595.551</ele>
        <time>2018-12-28T10:15:40Z</time>
      </trkpt>
      <trkpt lat="36.500790" lon="-118.812560">
        <ele>595.651</ele>
        <time>2018-12-28T10:16:00Z</time>
      </trkpt>
      <trkpt lat="36.500770" lon="-118.812620">
        <ele>596.001</ele>
        <time>2018-12-28T10:16:20Z</time>
      </trkpt>
      <trkpt lat="36.500760" lon="-118.812660">
        <ele>596.111</ele>
        <time>2018-12-28T10:16:40Z</time>
      </trkpt>
      <trkpt lat="36.500740" lon="-118.812710">
        <ele>595.808</ele>
        <time>2018-12-28T10:17:00Z</time>
      </trkpt>
      <trkpt lat="36.500730" lon="-118.812780">
        <ele>595.538</ele>
        <time>2018-12-28T10:17:20Z</time>
      </trkpt>
      <trkpt lat="36.500720" lon="-118.812880">
        <ele>595.216</ele>
        <time>2018-12-28T10:17:40Z</time>
      </trkpt>
      <trkpt lat="36.500710" lon="-118.812950">
        <ele>594.471</ele>
        <time>2018-12-28T10:18:00Z</time>
      </trkpt>
      <trkpt lat="36.500720" lon="-118.813050">
        <ele>593.721</ele>
        <time>2018-12-28T10:18:20Z</time>
      </trkpt>
      <trkpt lat="36.500730" lon="-118.813200">
        <ele>592.785</ele>
        <time>2018-12-28T10:18:40Z</time>
      </trkpt>
      <trkpt lat="36.500740" lon="-118.813270">
        <ele>591.918</ele>
        <time>2018-12-28T10:19:00Z</time>
      </trkpt>
      <trkpt lat="36.500760" lon="-118.813360">
        <ele>591.389</ele>
        <time>2018-12-28T10:19:20Z</time>
      </trkpt>
      <trkpt lat="36.500780" lon="-118.813450">
        <ele>590.632</ele>
        <time>2018-12-28T10:19:40Z</time>
      </trkpt>
      <trkpt lat="36.500810" lon="-118.813520">
        <ele>590.475</ele>
        <time>2018-12-28T10:20:00Z</time>
      </trkpt>
      <trkpt lat="36.500840" lon="-118.813580">
        <ele>590.528</ele>
        <time>2018-12-28T10:20:20Z</time>
      </trkpt>
      <trkpt lat="36.500900" lon="-118.813670">
        <ele>591.720</ele>
        <time>2018-12-28T10:20:40Z</time>
      </trkpt>
      <trkpt lat="36.500920" lon="-118.813720">
        <ele>591.808</ele>
        <time>2018-12-28T10:21:00Z</time>
      </trkpt>
      <trkpt lat="36.500970" lon="-118.813780">
        <ele>594.110</ele>
        <time>2018-12-28T10:21:20Z</time>
      </trkpt>
      <trkpt lat="36.500970" lon="-118.813790">
        <ele>594.138</ele>
        <time>2018-12-28T10:21:40Z</time>
      </trkpt>
      <trkpt lat="36.501010" lon="-118.813850">
        <ele>596.273</ele>
        <time>2018-12-28T10:22:00Z</time>
      </trkpt>
      <trkpt lat="36.501040" lon="-118.813910">
        <ele>597.423</ele>
        <time>2018-12-28T10:22:20Z</time>
      </trkpt>
      <trkpt lat="36.501050" lon="-118.813950">
        <ele>597.537</ele>
        <time>2018-12-28T10:22:40Z</time>
      </trkpt>
      <trkpt lat="36.501060" lon="-118.813980">
        <ele>597.760</ele>
        <time>2018-12-28T10:23:00Z</time>
      </trkpt>
      <trkpt lat="36.501070" lon="-118.814010">
        <ele>597.951</ele>
        <time>2018-12-28T10:23:20Z</time>
      </trkpt>
      <trkpt lat="36.501070" lon="-118.814030">
        <ele>597.794</ele>
        <time>2018-12-28T10:23:40Z</time>
      </trkpt>
      <trkpt lat="36.501060" lon="-118.814060">
        <ele>597.853</ele>
        <time>2018-12-28T10:24:00Z</time>
      </trkpt>
      <trkpt lat="36.501060" lon="-118.814100">
        <ele>598.604</ele>
        <time>2018-12-28T10:24:20Z</time>
      </trkpt>
      <trkpt lat="36.501050" lon="-118.814120">
        <ele>598.514</ele>
        <time>2018-12-28T10:24:40Z</time>
      </trkpt>
      <trkpt lat="36.501040" lon="-118.814150">
        <ele>598.808</ele>
        <time>2018-12-28T10:25:00Z</time>
      </trkpt>
      <trkpt lat="36.501020" lon="-118.814170">
        <ele>598.588</ele>
        <time>2018-12-28T10:25:20Z</time>
      </trkpt>
      <trkpt lat="36.501000" lon="-118.814190">
        <ele>598.356</ele>
        <time>2018-12-28T10:25:40Z</time>
      </trkpt>
      <trkpt lat="36.500970" lon="-118.814210">
        <ele>597.821</ele>
        <time>2018-12-28T10:26:00Z</time>
      </trkpt>
      <trkpt lat="36.500930" lon="-118.814230">
        <ele>596.691</ele>
        <time>2018-12-28T10:26:20Z</time>
      </trkpt>
      <trkpt lat="36.500880" lon="-118.814250">
        <ele>594.925</ele>
        <time>2018-12-28T10:26:40Z</time>
      </trkpt>
      <trkpt lat="36.500800" lon="-118.814270">
        <ele>592.188</ele>
        <time>2018-12-28T10:27:00Z</time>
      </trkpt>
      <trkpt lat="36.500740" lon="-118.814300">
        <ele>590.489</ele>
        <time>2018-12-28T10:27:20Z</time>
      </trkpt>
      <trkpt lat="36.500710" lon="-118.814320">
        <ele>589.582</ele>
        <time>2018-12-28T10:27:40Z</time>
      </trkpt>
      <trkpt lat="36.500680" lon="-118.814340">
        <ele>588.741</ele>
        <time>2018-12-28T10:28:00Z</time>
      </trkpt>
      <trkpt lat="36.500650" lon="-118.814370">
        <ele>588.181</ele>
        <time>2018-12-28T10:28:20Z</time>
      </trkpt>
      <trkpt lat="36.500620" lon="-118.814400">
        <ele>587.309</ele>
        <time>2018-12-28T10:28:40Z</time>
      </trkpt>
      <trkpt lat="36.500600" lon="-118.814440">
        <ele>587.008</ele>
        <time>2018-12-28T10:29:00Z</time>
      </trkpt>
      <trkpt lat="36.500590" lon="-118.814490">
        <ele>587.267</ele>
        <time>2018-12-28T10:29:20Z</time>
      </trkpt>
      <trkpt lat="36.500580" lon="-118.814540">
        <ele>587.255</ele>
        <time>2018-12-28T10:29:40Z</time>
      </trkpt>
      <trkpt lat="36.500580" lon="-118.814580">
        <ele>587.660</ele>
        <time>2018-12-28T10:30:00Z</time>
      </trkpt>
      <trkpt lat="36.500580" lon="-118.814630">
        <ele>587.270</ele>
        <time>2018-12-28T10:30:20Z</time>
      </trkpt>
      <trkpt lat="36.500580" lon="-118.814700">
        <ele>586.444</ele>
        <time>2018-12-28T10:30:40Z</time>
      </trkpt>
      <trkpt lat="36.500590" lon="-118.814760">
        <ele>586.287</ele>
        <time>2018-12-28T10:31:00Z</time>
      </trkpt>
      <trkpt lat="36.500610" lon="-118.814850">
        <ele>586.168</ele>
        <time>2018-12-28T10:31:20Z</time>
      </trkpt>
      <trkpt lat="36.500630" lon="-118.814950">
        <ele>585.441</ele>
        <time>2018-12-28T10:31:40Z</time>
      </trkpt>
      <trkpt lat="36.500650" lon="-118.815020">
        <ele>585.352</ele>
        <time>2018-12-28T10:32:00Z</time>
      </trkpt>
      <trkpt lat="36.500680" lon="-118.815090">
        <ele>585.853</ele>
        <time>2018-12-28T10:32:20Z</time>
      </trkpt>
      <trkpt lat="36.500700" lon="-118.815150">
        <ele>586.308</ele>
        <time>2018-12-28T10:32:40Z</time>
      </trkpt>
      <trkpt lat="36.500730" lon="-118.815220">
        <ele>588.508</ele>
        <time>2018-12-28T10:33:00Z</time>
      </trkpt>
      <trkpt lat="36.500740" lon="-118.815250">
        <ele>589.298</ele>
        <time>2018-12-28T10:33:20Z</time>
      </trkpt>
      <trkpt lat="36.500740" lon="-118.815280">
        <ele>589.256</ele>
        <time>2018-12-28T10:33:40Z</time>
      </trkpt>
      <trkpt lat="36.500750" lon="-118.815320">
        <ele>589.851</ele>
        <time>2018-12-28T10:34:00Z</time>
      </trkpt>
      <trkpt lat="36.500750" lon="-118.815340">
        <ele>589.811</ele>
        <time>2018-12-28T10:34:20Z</time>
      </trkpt>
      <trkpt lat="36.500740" lon="-118.815380">
        <ele>589.285</ele>
        <time>2018-12-28T10:34:40Z</time>
      </trkpt>
      <trkpt lat="36.500740" lon="-118.815410">
        <ele>589.218</ele>
        <time>2018-12-28T10:35:00Z</time>
      </trkpt>
      <trkpt lat="36.500720" lon="-118.815450">
        <ele>589.049</ele>
        <time>2018-12-28T10:35:20Z</time>
      </trkpt>
      <trkpt lat="36.500690" lon="-118.815510">
        <ele>588.972</ele>
        <time>2018-12-28T10:35:40Z</time>
      </trkpt>
      <trkpt lat="36.500650" lon="-118.815570">
        <ele>588.615</ele>
        <time>2018-12-28T10:36:00Z</time>
      </trkpt>
      <trkpt lat="36.500530" lon="-118.815690">
        <ele>586.065</ele>
        <time>2018-12-28T10:36:20Z</time>
      </trkpt>
      <trkpt lat="36.500430" lon="-118.815820">
        <ele>587.311</ele>
        <time>2018-12-28T10:36:40Z</time>
      </trkpt>
      <trkpt lat="36.500290" lon="-118.816000">
        <ele>590.108</ele>
        <time>2018-12-28T10:37:00Z</time>
      </trkpt>
      <trkpt lat="36.500180" lon="-118.816140">
        <ele>592.894</ele>
        <time>2018-12-28T10:37:20Z</time>
      </trkpt>
      <trkpt lat="36.500120" lon="-118.816220">
        <ele>594.142</ele>
        <time>2018-12-28T10:37:40Z</time>
      </trkpt>
      <trkpt lat="36.500080" lon="-118.816290">
        <ele>593.897</ele>
        <time>2018-12-28T10:38:00Z</time>
      </trkpt>
      <trkpt lat="36.500040" lon="-118.816350">
        <ele>593.147</ele>
        <time>2018-12-28T10:38:20Z</time>
      </trkpt>
      <trkpt lat="36.499960" lon="-118.816470">
        <ele>592.931</ele>
        <time>2018-12-28T10:38:40Z</time>
      </trkpt>
      <trkpt lat="36.499930" lon="-118.816510">
        <ele>593.044</ele>
        <time>2018-12-28T10:39:00Z</time>
      </trkpt>
      <trkpt lat="36.499890" lon="-118.816560">
        <ele>593.495</ele>
        <time>2018-12-28T10:39:20Z</time>
      </trkpt>
      <trkpt lat="36.499850" lon="-118.816610">
        <ele>594.058</ele>
        <time>2018-12-28T10:39:40Z</time>
      </trkpt>
      <trkpt lat="36.499780" lon="-118.816670">
        <ele>593.223</ele>
        <time>2018-12-28T10:40:00Z</time>
      </trkpt>
      <trkpt lat="36.499740" lon="-118.816700">
        <ele>592.483</ele>
        <time>2018-12-28T10:40:20Z</time>
      </trkpt>
      <trkpt lat="36.499680" lon="-118.816750">
        <ele>591.311</ele>
        <time>2018-12-28T10:40:40Z</time>
      </trkpt>
      <trkpt lat="36.499380" lon="-118.816960">
        <ele>585.008</ele>
        <time>2018-12-28T10:41:00Z</time>
      </trkpt>
      <trkpt lat="36.499330" lon="-118.817000">
        <ele>583.545</ele>
        <time>2018-12-28T10:41:20Z</time>
      </trkpt>
      <trkpt lat="36.499260" lon="-118.817050">
        <ele>580.993</ele>
        <time>2018-12-28T10:41:40Z</time>
      </trkpt>
      <trkpt lat="36.499220" lon="-118.817070">
        <ele>579.338</ele>
        <time>2018-12-28T10:42:00Z</time>
      </trkpt>
      <trkpt lat="36.499160" lon="-118.817100">
        <ele>577.988</ele>
        <time>2018-12-28T10:42:20Z</time>
      </trkpt>
      <trkpt lat="36.499110" lon="-118.817120">
        <ele>576.972</ele>
        <time>2018-12-28T10:42:40Z</time>
      </trkpt>
      <trkpt lat="36.499060" lon="-118.817140">
        <ele>575.975</ele>
        <time>2018-12-28T10:43:00Z</time>
      </trkpt>
      <trkpt lat="36.499000" lon="-118.817160">
        <ele>575.156</ele>
        <time>2018-12-28T10:43:20Z</time>
      </trkpt>
      <trkpt lat="36.498950" lon="-118.817170">
        <ele>574.169</ele>
        <time>2018-12-28T10:43:40Z</time>
      </trkpt>
      <trkpt lat="36.498890" lon="-118.817190">
        <ele>573.185</ele>
        <time>2018-12-28T10:44:00Z</time>
      </trkpt>
      <trkpt lat="36.498830" lon="-118.817190">
        <ele>570.689</ele>
        <time>2018-12-28T10:44:20Z</time>
      </trkpt>
      <trkpt lat="36.498760" lon="-118.817200">
        <ele>568.017</ele>
        <time>2018-12-28T10:44:40Z</time>
      </trkpt>
      <trkpt lat="36.498670" lon="-118.817210">
        <ele>566.008</ele>
        <time>2018-12-28T10:45:00Z</time>
      </trkpt>
      <trkpt lat="36.498630" lon="-118.817220">
        <ele>565.371</ele>
        <time>2018-12-28T10:45:20Z</time>
      </trkpt>
      <trkpt lat="36.498600" lon="-118.817230">
        <ele>564.769</ele>
        <time>2018-12-28T10:45:40Z</time>
      </trkpt>
      <trkpt lat="36.498570" lon="-118.817240">
        <ele>564.184</ele>
        <time>2018-12-28T10:46:00Z</time>
      </trkpt>
      <trkpt lat="36.498540" lon="-118.817260">
        <ele>563.534</ele>
        <time>2018-12-28T10:46:20Z</time>
      </trkpt>
      <trkpt lat="36.498500" lon="-118.817300">
        <ele>562.518</ele>
        <time>2018-12-28T10:46:40Z</time>
      </trkpt>
      <trkpt lat="36.498460" lon="-118.817340">
        <ele>561.361</ele>
        <time>2018-12-28T10:47:00Z</time>
      </trkpt>
      <trkpt lat="36.498430" lon="-118.817370">
        <ele>560.742</ele>
        <time>2018-12-28T10:47:20Z</time>
      </trkpt>
      <trkpt lat="36.498400" lon="-118.817410">
        <ele>560.755</ele>
        <time>2018-12-28T10:47:40Z</time>
      </trkpt>
      <trkpt lat="36.498330" lon="-118.817520">
        <ele>560.876</ele>
        <time>2018-12-28T10:48:00Z</time>
      </trkpt>
      <trkpt lat="36.498280" lon="-118.817590">
        <ele>560.590</ele>
        <time>2018-12-28T10:48:20Z</time>
      </trkpt>
      <trkpt lat="36.498230" lon="-118.817680">
        <ele>560.219</ele>
        <time>2018-12-28T10:48:40Z</time>
      </trkpt>
      <trkpt lat="36.498200" lon="-118.817730">
        <ele>559.908</ele>
        <time>2018-12-28T10:49:00Z</time>
      </trkpt>
      <trkpt lat="36.498160" lon="-118.817810">
        <ele>560.020</ele>
        <time>2018-12-28T10:49:20Z</time>
      </trkpt>
      <trkpt lat="36.498130" lon="-118.817860">
        <ele>559.918</ele>
        <time>2018-12-28T10:49:40Z</time>
      </trkpt>
      <trkpt lat="36.498100" lon="-118.817930">
        <ele>559.813</ele>
        <time>2018-12-28T10:50:00Z</time>
      </trkpt>
      <trkpt lat="36.498070" lon="-118.818030">
        <ele>558.863</ele>
        <time>2018-12-28T10:50:20Z</time>
      </trkpt>
      <trkpt lat="36.498040" lon="-118.818080">
        <ele>557.987</ele>
        <time>2018-12-28T10:50:40Z</time>
      </trkpt>
      <trkpt lat="36.498020" lon="-118.818140">
        <ele>557.470</ele>
        <time>2018-12-28T10:51:00Z</time>
      </trkpt>
      <trkpt lat="36.498010" lon="-118.818200">
        <ele>557.191</ele>
        <time>2018-12-28T10:51:20Z</time>
      </trkpt>
      <trkpt lat="36.498000" lon="-118.818230">
        <ele>556.754</ele>
        <time>2018-12-28T10:51:40Z</time>
      </trkpt>
      <trkpt lat="36.497990" lon="-118.818270">
        <ele>556.372</ele>
        <time>2018-12-28T10:52:00Z</time>
      </trkpt>
      <trkpt lat="36.497990" lon="-118.818290">
        <ele>556.213</ele>
        <time>2018-12-28T10:52:20Z</time>
      </trkpt>
      <trkpt lat="36.497980" lon="-118.818330">
        <ele>555.814</ele>
        <time>2018-12-28T10:52:40Z</time>
      </trkpt>
      <trkpt lat="36.497980" lon="-118.818350">
        <ele>555.708</ele>
        <time>2018-12-28T10:53:00Z</time>
      </trkpt>
      <trkpt lat="36.497980" lon="-118.818370">
        <ele>555.630</ele>
        <time>2018-12-28T10:53:20Z</time>
      </trkpt>
      <trkpt lat="36.497990" lon="-118.818420">
        <ele>555.498</ele>
        <time>2018-12-28T10:53:40Z</time>
      </trkpt>
      <trkpt lat="36.497990" lon="-118.818450">
        <ele>555.323</ele>
        <time>2018-12-28T10:54:00Z</time>
      </trkpt>
      <trkpt lat="36.498000" lon="-118.818490">
        <ele>555.023</ele>
        <time>2018-12-28T10:54:20Z</time>
      </trkpt>
      <trkpt lat="36.498020" lon="-118.818550">
        <ele>554.487</ele>
        <time>2018-12-28T10:54:40Z</time>
      </trkpt>
      <trkpt lat="36.498040" lon="-118.818620">
        <ele>553.610</ele>
        <time>2018-12-28T10:55:00Z</time>
      </trkpt>
      <trkpt lat="36.498080" lon="-118.818710">
        <ele>552.351</ele>
        <time>2018-12-28T10:55:20Z</time>
      </trkpt>
      <trkpt lat="36.498110" lon="-118.818800">
        <ele>551.464</ele>
        <time>2018-12-28T10:55:40Z</time>
      </trkpt>
      <trkpt lat="36.498120" lon="-118.818840">
        <ele>551.325</ele>
        <time>2018-12-28T10:56:00Z</time>
      </trkpt>
      <trkpt lat="36.498130" lon="-118.818880">
        <ele>551.326</ele>
        <time>2018-12-28T10:56:20Z</time>
      </trkpt>
      <trkpt lat="36.498130" lon="-118.818910">
        <ele>551.208</ele>
        <time>2018-12-28T10:56:40Z</time>
      </trkpt>
      <trkpt lat="36.498130" lon="-118.818960">
        <ele>551.208</ele>
        <time>2018-12-28T10:57:00Z</time>
      </trkpt>
      <trkpt lat="36.498120" lon="-118.818990">
        <ele>550.965</ele>
        <time>2018-12-28T10:57:20Z</time>
      </trkpt>
      <trkpt lat="36.498110" lon="-118.819030">
        <ele>550.613</ele>
        <time>2018-12-28T10:57:40Z</time>
      </trkpt>
      <trkpt lat="36.498090" lon="-118.819080">
        <ele>551.268</ele>
        <time>2018-12-28T10:58:00Z</time>
      </trkpt>
      <trkpt lat="36.498060" lon="-118.819150">
        <ele>551.728</ele>
        <time>2018-12-28T10:58:20Z</time>
      </trkpt>
      <trkpt lat="36.498020" lon="-118.819220">
        <ele>551.612</ele>
        <time>2018-12-28T10:58:40Z</time>
      </trkpt>
      <trkpt lat="36.497960" lon="-118.819330">
        <ele>550.835</ele>
        <time>2018-12-28T10:59:00Z</time>
      </trkpt>
      <trkpt lat="36.497880" lon="-118.819470">
        <ele>549.316</ele>
        <time>2018-12-28T10:59:20Z</time>
      </trkpt>
      <trkpt lat="36.497850" lon="-118.819530">
        <ele>549.089</ele>
        <time>2018-12-28T10:59:40Z</time>
      </trkpt>
      <trkpt lat="36.497820" lon="-118.819600">
        <ele>548.624</ele>
        <time>2018-12-28T11:00:00Z</time>
      </trkpt>
      <trkpt lat="36.497810" lon="-118.819630">
        <ele>548.404</ele>
        <time>2018-12-28T11:00:20Z</time>
      </trkpt>
      <trkpt lat="36.497800" lon="-118.819660">
        <ele>548.214</ele>
        <time>2018-12-28T11:00:40Z</time>
      </trkpt>
      <trkpt lat="36.497800" lon="-118.819690">
        <ele>548.308</ele>
        <time>2018-12-28T11:01:00Z</time>
      </trkpt>
      <trkpt lat="36.497790" lon="-118.819720">
        <ele>548.035</ele>
        <time>2018-12-28T11:01:20Z</time>
      </trkpt>
      <trkpt lat="36.497780" lon="-118.819780">
        <ele>547.913</ele>
        <time>2018-12-28T11:01:40Z</time>
      </trkpt>
      <trkpt lat="36.497780" lon="-118.819860">
        <ele>548.198</ele>
        <time>2018-12-28T11:02:00Z</time>
      </trkpt>
      <trkpt lat="36.497780" lon="-118.819910">
        <ele>547.058</ele>
        <time>2018-12-28T11:02:20Z</time>
      </trkpt>
      <trkpt lat="36.497780" lon="-118.819970">
        <ele>545.572</ele>
        <time>2018-12-28T11:02:40Z</time>
      </trkpt>
      <trkpt lat="36.497790" lon="-118.820030">
        <ele>544.655</ele>
        <time>2018-12-28T11:03:00Z</time>
      </trkpt>
      <trkpt lat="36.497810" lon="-118.820080">
        <ele>544.496</ele>
        <time>2018-12-28T11:03:20Z</time>
      </trkpt>
      <trkpt lat="36.497830" lon="-118.820140">
        <ele>544.119</ele>
        <time>2018-12-28T11:03:40Z</time>
      </trkpt>
      <trkpt lat="36.497840" lon="-118.820200">
        <ele>543.319</ele>
        <time>2018-12-28T11:04:00Z</time>
      </trkpt>
      <trkpt lat="36.497860" lon="-118.820260">
        <ele>542.909</ele>
        <time>2018-12-28T11:04:20Z</time>
      </trkpt>
      <trkpt lat="36.497870" lon="-118.820300">
        <ele>542.519</ele>
        <time>2018-12-28T11:04:40Z</time>
      </trkpt>
      <trkpt lat="36.497870" lon="-118.820340">
        <ele>541.608</ele>
        <time>2018-12-28T11:05:00Z</time>
      </trkpt>
      <trkpt lat="36.497870" lon="-118.820370">
        <ele>540.914</ele>
        <time>2018-12-28T11:05:20Z</time>
      </trkpt>
      <trkpt lat="36.497860" lon="-118.820400">
        <ele>539.772</ele>
        <time>2018-12-28T11:05:40Z</time>
      </trkpt>
      <trkpt lat="36.497860" lon="-118.820450">
        <ele>540.347</ele>
        <time>2018-12-28T11:06:00Z</time>
      </trkpt>
      <trkpt lat="36.497840" lon="-118.820520">
        <ele>541.237</ele>
        <time>2018-12-28T11:06:20Z</time>
      </trkpt>
      <trkpt lat="36.497770" lon="-118.820720">
        <ele>542.091</ele>
        <time>2018-12-28T11:06:40Z</time>
      </trkpt>
      <trkpt lat="36.497750" lon="-118.820800">
        <ele>542.164</ele>
        <time>2018-12-28T11:07:00Z</time>
      </trkpt>
      <trkpt lat="36.497720" lon="-118.820870">
        <ele>541.325</ele>
        <time>2018-12-28T11:07:20Z</time>
      </trkpt>
      <trkpt lat="36.497700" lon="-118.820940">
        <ele>541.048</ele>
        <time>2018-12-28T11:07:40Z</time>
      </trkpt>
      <trkpt lat="36.497680" lon="-118.821010">
        <ele>540.684</ele>
        <time>2018-12-28T11:08:00Z</time>
      </trkpt>
      <trkpt lat="36.497670" lon="-118.821060">
        <ele>540.507</ele>
        <time>2018-12-28T11:08:20Z</time>
      </trkpt>
      <trkpt lat="36.497660" lon="-118.821120">
        <ele>540.517</ele>
        <time>2018-12-28T11:08:40Z</time>
      </trkpt>
      <trkpt lat="36.497650" lon="-118.821170">
        <ele>540.508</ele>
        <time>2018-12-28T11:09:00Z</time>
      </trkpt>
      <trkpt lat="36.497650" lon="-118.821190">
        <ele>540.781</ele>
        <time>2018-12-28T11:09:20Z</time>
      </trkpt>
      <trkpt lat="36.497640" lon="-118.821290">
        <ele>540.619</ele>
        <time>2018-12-28T11:09:40Z</time>
      </trkpt>
      <trkpt lat="36.497640" lon="-118.821460">
        <ele>540.084</ele>
        <time>2018-12-28T11:10:00Z</time>
      </trkpt>
      <trkpt lat="36.497640" lon="-118.821560">
        <ele>539.534</ele>
        <time>2018-12-28T11:10:20Z</time>
      </trkpt>
      <trkpt lat="36.497640" lon="-118.821690">
        <ele>538.548</ele>
        <time>2018-12-28T11:10:40Z</time>
      </trkpt>
      <trkpt lat="36.497640" lon="-118.821760">
        <ele>538.051</ele>
        <time>2018-12-28T11:11:00Z</time>
      </trkpt>
      <trkpt lat="36.497640" lon="-118.821800">
        <ele>537.752</ele>
        <time>2018-12-28T11:11:20Z</time>
      </trkpt>
      <trkpt lat="36.497640" lon="-118.821830">
        <ele>537.865</ele>
        <time>2018-12-28T11:11:40Z</time>
      </trkpt>
      <trkpt lat="36.497630" lon="-118.821860">
        <ele>537.745</ele>
        <time>2018-12-28T11:12:00Z</time>
      </trkpt>
      <trkpt lat="36.497630" lon="-118.821890">
        <ele>537.947</ele>
        <time>2018-12-28T11:12:20Z</time>
      </trkpt>
      <trkpt lat="36.497620" lon="-118.821900">
        <ele>537.711</ele>
        <time>2018-12-28T11:12:40Z</time>
      </trkpt>
      <trkpt lat="36.497620" lon="-118.821920">
        <ele>537.908</ele>
        <time>2018-12-28T11:13:00Z</time>
      </trkpt>
      <trkpt lat="36.497610" lon="-118.821950">
        <ele>537.957</ele>
        <time>2018-12-28T11:13:20Z</time>
      </trkpt>
      <trkpt lat="36.497600" lon="-118.821970">
        <ele>537.915</ele>
        <time>2018-12-28T11:13:40Z</time>
      </trkpt>
      <trkpt lat="36.497580" lon="-118.822000">
        <ele>537.860</ele>
        <time>2018-12-28T11:14:00Z</time>
      </trkpt>
      <trkpt lat="36.497570" lon="-118.822010">
        <ele>537.710</ele>
        <time>2018-12-28T11:14:20Z</time>
      </trkpt>
      <trkpt lat="36.497560" lon="-118.822030">
        <ele>537.874</ele>
        <time>2018-12-28T11:14:40Z</time>
      </trkpt>
      <trkpt lat="36.497540" lon="-118.822060">
        <ele>537.987</ele>
        <time>2018-12-28T11:15:00Z</time>
      </trkpt>
      <trkpt lat="36.497520" lon="-118.822090">
        <ele>538.238</ele>
        <time>2018-12-28T11:15:20Z</time>
      </trkpt>
      <trkpt lat="36.497450" lon="-118.822160">
        <ele>539.371</ele>
        <time>2018-12-28T11:15:40Z</time>
      </trkpt>
      <trkpt lat="36.497410" lon="-118.822210">
        <ele>540.094</ele>
        <time>2018-12-28T11:16:00Z</time>
      </trkpt>
      <trkpt lat="36.497260" lon="-118.822360">
        <ele>539.757</ele>
        <time>2018-12-28T11:16:20Z</time>
      </trkpt>
      <trkpt lat="36.497120" lon="-118.822510">
        <ele>541.322</ele>
        <time>2018-12-28T11:16:40Z</time>
      </trkpt>
      <trkpt lat="36.497070" lon="-118.822560">
        <ele>541.208</ele>
        <time>2018-12-28T11:17:00Z</time>
      </trkpt>
      <trkpt lat="36.497030" lon="-118.822590">
        <ele>541.362</ele>
        <time>2018-12-28T11:17:20Z</time>
      </trkpt>
      <trkpt lat="36.496980" lon="-118.822620">
        <ele>541.460</ele>
        <time>2018-12-28T11:17:40Z</time>
      </trkpt>
      <trkpt lat="36.496930" lon="-118.822640">
        <ele>541.215</ele>
        <time>2018-12-28T11:18:00Z</time>
      </trkpt>
      <trkpt lat="36.496890" lon="-118.822650">
        <ele>541.335</ele>
        <time>2018-12-28T11:18:20Z</time>
      </trkpt>
      <trkpt lat="36.496850" lon="-118.822660">
        <ele>541.459</ele>
        <time>2018-12-28T11:18:40Z</time>
      </trkpt>
      <trkpt lat="36.496800" lon="-118.822670">
        <ele>541.392</ele>
        <time>2018-12-28T11:19:00Z</time>
      </trkpt>
      <trkpt lat="36.496750" lon="-118.822660">
        <ele>540.373</ele>
        <time>2018-12-28T11:19:20Z</time>
      </trkpt>
      <trkpt lat="36.496700" lon="-118.822660">
        <ele>540.126</ele>
        <time>2018-12-28T11:19:40Z</time>
      </trkpt>
      <trkpt lat="36.496620" lon="-118.822640">
        <ele>538.167</ele>
        <time>2018-12-28T11:20:00Z</time>
      </trkpt>
      <trkpt lat="36.496330" lon="-118.822550">
        <ele>535.581</ele>
        <time>2018-12-28T11:20:20Z</time>
      </trkpt>
      <trkpt lat="36.496160" lon="-118.822500">
        <ele>534.419</ele>
        <time>2018-12-28T11:20:40Z</time>
      </trkpt>
      <trkpt lat="36.496080" lon="-118.822480">
        <ele>534.008</ele>
        <time>2018-12-28T11:21:00Z</time>
      </trkpt>
      <trkpt lat="36.496020" lon="-118.822460">
        <ele>533.349</ele>
        <time>2018-12-28T11:21:20Z</time>
      </trkpt>
      <trkpt lat="36.495960" lon="-118.822440">
        <ele>532.517</ele>
        <time>2018-12-28T11:21:40Z</time>
      </trkpt>
      <trkpt lat="36.495920" lon="-118.822440">
        <ele>532.122</ele>
        <time>2018-12-28T11:22:00Z</time>
      </trkpt>
      <trkpt lat="36.495890" lon="-118.822440">
        <ele>531.922</ele>
        <time>2018-12-28T11:22:20Z</time>
      </trkpt>
      <trkpt lat="36.495860" lon="-118.822450">
        <ele>532.056</ele>
        <time>2018-12-28T11:22:40Z</time>
      </trkpt>
      <trkpt lat="36.495830" lon="-118.822460">
        <ele>532.149</ele>
        <time>2018-12-28T11:23:00Z</time>
      </trkpt>
      <trkpt lat="36.495770" lon="-118.822480">
        <ele>532.310</ele>
        <time>2018-12-28T11:23:20Z</time>
      </trkpt>
      <trkpt lat="36.495720" lon="-118.822510">
        <ele>532.893</ele>
        <time>2018-12-28T11:23:40Z</time>
      </trkpt>
      <trkpt lat="36.495650" lon="-118.822540">
        <ele>532.566</ele>
        <time>2018-12-28T11:24:00Z</time>
      </trkpt>
      <trkpt lat="36.495620" lon="-118.822560">
        <ele>532.529</ele>
        <time>2018-12-28T11:24:20Z</time>
      </trkpt>
      <trkpt lat="36.495590" lon="-118.822580">
        <ele>532.521</ele>
        <time>2018-12-28T11:24:40Z</time>
      </trkpt>
      <trkpt lat="36.495550" lon="-118.822610">
        <ele>532.608</ele>
        <time>2018-12-28T11:25:00Z</time>
      </trkpt>
      <trkpt lat="36.495480" lon="-118.822660">
        <ele>532.469</ele>
        <time>2018-12-28T11:25:20Z</time>
      </trkpt>
      <trkpt lat="36.495420" lon="-118.822720">
        <ele>532.217</ele>
        <time>2018-12-28T11:25:40Z</time>
      </trkpt>
      <trkpt lat="36.495370" lon="-118.822750">
        <ele>531.862</ele>
        <time>2018-12-28T11:26:00Z</time>
      </trkpt>
      <trkpt lat="36.495340" lon="-118.822780">
        <ele>532.012</ele>
        <time>2018-12-28T11:26:20Z</time>
      </trkpt>
      <trkpt lat="36.495300" lon="-118.822800">
        <ele>531.926</ele>
        <time>2018-12-28T11:26:40Z</time>
      </trkpt>
      <trkpt lat="36.495260" lon="-118.822810">
        <ele>531.519</ele>
        <time>2018-12-28T11:27:00Z</time>
      </trkpt>
      <trkpt lat="36.495200" lon="-118.822830">
        <ele>531.260</ele>
        <time>2018-12-28T11:27:20Z</time>
      </trkpt>
      <trkpt lat="36.495140" lon="-118.822860">
        <ele>531.573</ele>
        <time>2018-12-28T11:27:40Z</time>
      </trkpt>
      <trkpt lat="36.495090" lon="-118.822880">
        <ele>531.349</ele>
        <time>2018-12-28T11:28:00Z</time>
      </trkpt>
      <trkpt lat="36.495040" lon="-118.822910">
        <ele>531.602</ele>
        <time>2018-12-28T11:28:20Z</time>
      </trkpt>
      <trkpt lat="36.494990" lon="-118.822940">
        <ele>531.822</ele>
        <time>2018-12-28T11:28:40Z</time>
      </trkpt>
      <trkpt lat="36.494960" lon="-118.822960">
        <ele>532.008</ele>
        <time>2018-12-28T11:29:00Z</time>
      </trkpt>
      <trkpt lat="36.494910" lon="-118.823000">
        <ele>532.467</ele>
        <time>2018-12-28T11:29:20Z</time>
      </trkpt>
      <trkpt lat="36.494820" lon="-118.823080">
        <ele>532.985</ele>
        <time>2018-12-28T11:29:40Z</time>
      </trkpt>
      <trkpt lat="36.494810" lon="-118.823090">
        <ele>533.010</ele>
        <time>2018-12-28T11:30:00Z</time>
      </trkpt>
      <trkpt lat="36.494760" lon="-118.823130">
        <ele>533.240</ele>
        <time>2018-12-28T11:30:20Z</time>
      </trkpt>
      <trkpt lat="36.494700" lon="-118.823190">
        <ele>533.944</ele>
        <time>2018-12-28T11:30:40Z</time>
      </trkpt>
      <trkpt lat="36.494590" lon="-118.823270">
        <ele>534.427</ele>
        <time>2018-12-28T11:31:00Z</time>
      </trkpt>
      <trkpt lat="36.494480" lon="-118.823350">
        <ele>534.688</ele>
        <time>2018-12-28T11:31:20Z</time>
      </trkpt>
      <trkpt lat="36.494470" lon="-118.823360">
        <ele>534.781</ele>
        <time>2018-12-28T11:31:40Z</time>
      </trkpt>
      <trkpt lat="36.494400" lon="-118.823400">
        <ele>534.369</ele>
        <time>2018-12-28T11:32:00Z</time>
      </trkpt>
      <trkpt lat="36.494340" lon="-118.823450">
        <ele>534.504</ele>
        <time>2018-12-28T11:32:20Z</time>
      </trkpt>
      <trkpt lat="36.494300" lon="-118.823490">
        <ele>534.824</ele>
        <time>2018-12-28T11:32:40Z</time>
      </trkpt>
      <trkpt lat="36.494270" lon="-118.823520">
        <ele>534.808</ele>
        <time>2018-12-28T11:33:00Z</time>
      </trkpt>
      <trkpt lat="36.494190" lon="-118.823620">
        <ele>535.569</ele>
        <time>2018-12-28T11:33:20Z</time>
      </trkpt>
      <trkpt lat="36.493960" lon="-118.823920">
        <ele>535.887</ele>
        <time>2018-12-28T11:33:40Z</time>
      </trkpt>
      <trkpt lat="36.493720" lon="-118.824240">
        <ele>534.652</ele>
        <time>2018-12-28T11:34:00Z</time>
      </trkpt>
      <trkpt lat="36.493650" lon="-118.824330">
        <ele>534.572</ele>
        <time>2018-12-28T11:34:20Z</time>
      </trkpt>
      <trkpt lat="36.493620" lon="-118.824370">
        <ele>534.566</ele>
        <time>2018-12-28T11:34:40Z</time>
      </trkpt>
      <trkpt lat="36.493600" lon="-118.824400">
        <ele>534.659</ele>
        <time>2018-12-28T11:35:00Z</time>
      </trkpt>
      <trkpt lat="36.493580" lon="-118.824420">
        <ele>534.530</ele>
        <time>2018-12-28T11:35:20Z</time>
      </trkpt>
      <trkpt lat="36.493560" lon="-118.824440">
        <ele>534.473</ele>
        <time>2018-12-28T11:35:40Z</time>
      </trkpt>
      <trkpt lat="36.493540" lon="-118.824460">
        <ele>534.486</ele>
        <time>2018-12-28T11:36:00Z</time>
      </trkpt>
      <trkpt lat="36.493400" lon="-118.824590">
        <ele>533.960</ele>
        <time>2018-12-28T11:36:20Z</time>
      </trkpt>
      <trkpt lat="36.493320" lon="-118.824670">
        <ele>533.226</ele>
        <time>2018-12-28T11:36:40Z</time>
      </trkpt>
      <trkpt lat="36.493290" lon="-118.824700">
        <ele>533.008</ele>
        <time>2018-12-28T11:37:00Z</time>
      </trkpt>
      <trkpt lat="36.493250" lon="-118.824730">
        <ele>532.671</ele>
        <time>2018-12-28T11:37:20Z</time>
      </trkpt>
      <trkpt lat="36.493210" lon="-118.824770">
        <ele>532.419</ele>
        <time>2018-12-28T11:37:40Z</time>
      </trkpt>
      <trkpt lat="36.493170" lon="-118.824800">
        <ele>532.274</ele>
        <time>2018-12-28T11:38:00Z</time>
      </trkpt>
      <trkpt lat="36.493140" lon="-118.824820">
        <ele>532.334</ele>
        <time>2018-12-28T11:38:20Z</time>
      </trkpt>
      <trkpt lat="36.493110" lon="-118.824840">
        <ele>532.468</ele>
        <time>2018-12-28T11:38:40Z</time>
      </trkpt>
      <trkpt lat="36.493070" lon="-118.824860">
        <ele>532.441</ele>
        <time>2018-12-28T11:39:00Z</time>
      </trkpt>
      <trkpt lat="36.493040" lon="-118.824870">
        <ele>532.322</ele>
        <time>2018-12-28T11:39:20Z</time>
      </trkpt>
      <trkpt lat="36.493000" lon="-118.824870">
        <ele>531.865</ele>
        <time>2018-12-28T11:39:40Z</time>
      </trkpt>
      <trkpt lat="36.492970" lon="-118.824870">
        <ele>531.484</ele>
        <time>2018-12-28T11:40:00Z</time>
      </trkpt>
      <trkpt lat="36.492920" lon="-118.824870">
        <ele>530.807</ele>
        <time>2018-12-28T11:40:20Z</time>
      </trkpt>
      <trkpt lat="36.492890" lon="-118.824870">
        <ele>530.817</ele>
        <time>2018-12-28T11:40:40Z</time>
      </trkpt>
      <trkpt lat="36.492850" lon="-118.824870">
        <ele>530.808</ele>
        <time>2018-12-28T11:41:00Z</time>
      </trkpt>
      <trkpt lat="36.492810" lon="-118.824870">
        <ele>530.881</ele>
        <time>2018-12-28T11:41:20Z</time>
      </trkpt>
      <trkpt lat="36.492780" lon="-118.824870">
        <ele>530.829</ele>
        <time>2018-12-28T11:41:40Z</time>
      </trkpt>
      <trkpt lat="36.492750" lon="-118.824880">
        <ele>530.944</ele>
        <time>2018-12-28T11:42:00Z</time>
      </trkpt>
      <trkpt lat="36.492720" lon="-118.824880">
        <ele>530.924</ele>
        <time>2018-12-28T11:42:20Z</time>
      </trkpt>
      <trkpt lat="36.492700" lon="-118.824890">
        <ele>530.998</ele>
        <time>2018-12-28T11:42:40Z</time>
      </trkpt>
      <trkpt lat="36.492680" lon="-118.824910">
        <ele>530.921</ele>
        <time>2018-12-28T11:43:00Z</time>
      </trkpt>
      <trkpt lat="36.492660" lon="-118.824920">
        <ele>530.872</ele>
        <time>2018-12-28T11:43:20Z</time>
      </trkpt>
      <trkpt lat="36.492640" lon="-118.824940">
        <ele>530.755</ele>
        <time>2018-12-28T11:43:40Z</time>
      </trkpt>
      <trkpt lat="36.492620" lon="-118.824970">
        <ele>530.215</ele>
        <time>2018-12-28T11:44:00Z</time>
      </trkpt>
      <trkpt lat="36.492600" lon="-118.825000">
        <ele>529.765</ele>
        <time>2018-12-28T11:44:20Z</time>
      </trkpt>
      <trkpt lat="36.492580" lon="-118.825040">
        <ele>529.111</ele>
        <time>2018-12-28T11:44:40Z</time>
      </trkpt>
      <trkpt lat="36.492560" lon="-118.825100">
        <ele>528.508</ele>
        <time>2018-12-28T11:45:00Z</time>
      </trkpt>
      <trkpt lat="36.492560" lon="-118.825130">
        <ele>528.384</ele>
        <time>2018-12-28T11:45:20Z</time>
      </trkpt>
      <trkpt lat="36.492550" lon="-118.825170">
        <ele>527.752</ele>
        <time>2018-12-28T11:45:40Z</time>
      </trkpt>
      <trkpt lat="36.492550" lon="-118.825230">
        <ele>527.027</ele>
        <time>2018-12-28T11:46:00Z</time>
      </trkpt>
      <trkpt lat="36.492550" lon="-118.825260">
        <ele>526.767</ele>
        <time>2018-12-28T11:46:20Z</time>
      </trkpt>
      <trkpt lat="36.492550" lon="-118.825300">
        <ele>526.271</ele>
        <time>2018-12-28T11:46:40Z</time>
      </trkpt>
      <trkpt lat="36.492560" lon="-118.825350">
        <ele>526.094</ele>
        <time>2018-12-28T11:47:00Z</time>
      </trkpt>
      <trkpt lat="36.492570" lon="-118.825420">
        <ele>525.615</ele>
        <time>2018-12-28T11:47:20Z</time>
      </trkpt>
      <trkpt lat="36.492590" lon="-118.825460">
        <ele>525.588</ele>
        <time>2018-12-28T11:47:40Z</time>
      </trkpt>
      <trkpt lat="36.492600" lon="-118.825500">
        <ele>524.874</ele>
        <time>2018-12-28T11:48:00Z</time>
      </trkpt>
      <trkpt lat="36.492610" lon="-118.825550">
        <ele>523.856</ele>
        <time>2018-12-28T11:48:20Z</time>
      </trkpt>
      <trkpt lat="36.492620" lon="-118.825570">
        <ele>523.621</ele>
        <time>2018-12-28T11:48:40Z</time>
      </trkpt>
      <trkpt lat="36.492640" lon="-118.825620">
        <ele>522.908</ele>
        <time>2018-12-28T11:49:00Z</time>
      </trkpt>
      <trkpt lat="36.492660" lon="-118.825660">
        <ele>522.380</ele>
        <time>2018-12-28T11:49:20Z</time>
      </trkpt>
      <trkpt lat="36.492690" lon="-118.825700">
        <ele>522.128</ele>
        <time>2018-12-28T11:49:40Z</time>
      </trkpt>
      <trkpt lat="36.492720" lon="-118.825740">
        <ele>522.463</ele>
        <time>2018-12-28T11:50:00Z</time>
      </trkpt>
      <trkpt lat="36.492740" lon="-118.825770">
        <ele>522.563</ele>
        <time>2018-12-28T11:50:20Z</time>
      </trkpt>
      <trkpt lat="36.492770" lon="-118.825800">
        <ele>522.767</ele>
        <time>2018-12-28T11:50:40Z</time>
      </trkpt>
      <trkpt lat="36.492790" lon="-118.825830">
        <ele>522.730</ele>
        <time>2018-12-28T11:51:00Z</time>
      </trkpt>
      <trkpt lat="36.492800" lon="-118.825850">
        <ele>522.671</ele>
        <time>2018-12-28T11:51:20Z</time>
      </trkpt>
      <trkpt lat="36.492820" lon="-118.825880">
        <ele>522.554</ele>
        <time>2018-12-28T11:51:40Z</time>
      </trkpt>
      <trkpt lat="36.492830" lon="-118.825920">
        <ele>521.928</ele>
        <time>2018-12-28T11:52:00Z</time>
      </trkpt>
      <trkpt lat="36.492830" lon="-118.825940">
        <ele>521.589</ele>
        <time>2018-12-28T11:52:20Z</time>
      </trkpt>
      <trkpt lat="36.492830" lon="-118.825970">
        <ele>520.917</ele>
        <time>2018-12-28T11:52:40Z</time>
      </trkpt>
      <trkpt lat="36.492830" lon="-118.826000">
        <ele>521.208</ele>
        <time>2018-12-28T11:53:00Z</time>
      </trkpt>
      <trkpt lat="36.492830" lon="-118.826030">
        <ele>521.675</ele>
        <time>2018-12-28T11:53:20Z</time>
      </trkpt>
      <trkpt lat="36.492820" lon="-118.826060">
        <ele>521.953</ele>
        <time>2018-12-28T11:53:40Z</time>
      </trkpt>
      <trkpt lat="36.492810" lon="-118.826080">
        <ele>522.198</ele>
        <time>2018-12-28T11:54:00Z</time>
      </trkpt>
      <trkpt lat="36.492800" lon="-118.826100">
        <ele>522.468</ele>
        <time>2018-12-28T11:54:20Z</time>
      </trkpt>
      <trkpt lat="36.492790" lon="-118.826120">
        <ele>522.882</ele>
        <time>2018-12-28T11:54:40Z</time>
      </trkpt>
      <trkpt lat="36.492780" lon="-118.826140">
        <ele>523.365</ele>
        <time>2018-12-28T11:55:00Z</time>
      </trkpt>
      <trkpt lat="36.492770" lon="-118.826150">
        <ele>523.686</ele>
        <time>2018-12-28T11:55:20Z</time>
      </trkpt>
      <trkpt lat="36.492760" lon="-118.826160">
        <ele>523.929</ele>
        <time>2018-12-28T11:55:40Z</time>
      </trkpt>
      <trkpt lat="36.492740" lon="-118.826170">
        <ele>524.458</ele>
        <time>2018-12-28T11:56:00Z</time>
      </trkpt>
      <trkpt lat="36.492730" lon="-118.826180">
        <ele>524.852</ele>
        <time>2018-12-28T11:56:20Z</time>
      </trkpt>
      <trkpt lat="36.492710" lon="-118.826190">
        <ele>525.417</ele>
        <time>2018-12-28T11:56:40Z</time>
      </trkpt>
      <trkpt lat="36.492700" lon="-118.826190">
        <ele>525.508</ele>
        <time>2018-12-28T11:57:00Z</time>
      </trkpt>
      <trkpt lat="36.492680" lon="-118.826200">
        <ele>526.238</ele>
        <time>2018-12-28T11:57:20Z</time>
      </trkpt>
      <trkpt lat="36.492670" lon="-118.826200">
        <ele>526.416</ele>
        <time>2018-12-28T11:57:40Z</time>
      </trkpt>
      <trkpt lat="36.492640" lon="-118.826200">
        <ele>526.921</ele>
        <time>2018-12-28T11:58:00Z</time>
      </trkpt>
      <trkpt lat="36.492620" lon="-118.826200">
        <ele>527.561</ele>
        <time>2018-12-28T11:58:20Z</time>
      </trkpt>
      <trkpt lat="36.492590" lon="-118.826190">
        <ele>528.195</ele>
        <time>2018-12-28T11:58:40Z</time>
      </trkpt>
      <trkpt lat="36.492560" lon="-118.826180">
        <ele>528.668</ele>
        <time>2018-12-28T11:59:00Z</time>
      </trkpt>
      <trkpt lat="36.492510" lon="-118.826150">
        <ele>529.139</ele>
        <time>2018-12-28T11:59:20Z</time>
      </trkpt>
      <trkpt lat="36.492450" lon="-118.826110">
        <ele>529.692</ele>
        <time>2018-12-28T11:59:40Z</time>
      </trkpt>
      <trkpt lat="36.492380" lon="-118.826050">
        <ele>529.813</ele>
        <time>2018-12-28T12:00:00Z</time>
      </trkpt>
      <trkpt lat="36.492330" lon="-118.826010">
        <ele>529.943</ele>
        <time>2018-12-28T12:00:20Z</time>
      </trkpt>
      <trkpt lat="36.492270" lon="-118.825960">
        <ele>529.707</ele>
        <time>2018-12-28T12:00:40Z</time>
      </trkpt>
      <trkpt lat="36.492220" lon="-118.825910">
        <ele>528.908</ele>
        <time>2018-12-28T12:01:00Z</time>
      </trkpt>
      <trkpt lat="36.492200" lon="-118.825900">
        <ele>529.294</ele>
        <time>2018-12-28T12:01:20Z</time>
      </trkpt>
      <trkpt lat="36.492170" lon="-118.825880">
        <ele>529.442</ele>
        <time>2018-12-28T12:01:40Z</time>
      </trkpt>
      <trkpt lat="36.492140" lon="-118.825860">
        <ele>529.737</ele>
        <time>2018-12-28T12:02:00Z</time>
      </trkpt>
      <trkpt lat="36.492090" lon="-118.825840">
        <ele>530.927</ele>
        <time>2018-12-28T12:02:20Z</time>
      </trkpt>
      <trkpt lat="36.492050" lon="-118.825820">
        <ele>531.181</ele>
        <time>2018-12-28T12:02:40Z</time>
      </trkpt>
      <trkpt lat="36.492000" lon="-118.825800">
        <ele>531.454</ele>
        <time>2018-12-28T12:03:00Z</time>
      </trkpt>
      <trkpt lat="36.491950" lon="-118.825780">
        <ele>531.835</ele>
        <time>2018-12-28T12:03:20Z</time>
      </trkpt>
      <trkpt lat="36.491820" lon="-118.825740">
        <ele>533.518</ele>
        <time>2018-12-28T12:03:40Z</time>
      </trkpt>
      <trkpt lat="36.491770" lon="-118.825730">
        <ele>533.696</ele>
        <time>2018-12-28T12:04:00Z</time>
      </trkpt>
      <trkpt lat="36.491720" lon="-118.825720">
        <ele>533.331</ele>
        <time>2018-12-28T12:04:20Z</time>
      </trkpt>
      <trkpt lat="36.491670" lon="-118.825710">
        <ele>533.024</ele>
        <time>2018-12-28T12:04:40Z</time>
      </trkpt>
      <trkpt lat="36.491580" lon="-118.825710">
        <ele>532.808</ele>
        <time>2018-12-28T12:05:00Z</time>
      </trkpt>
      <trkpt lat="36.491480" lon="-118.825710">
        <ele>531.652</ele>
        <time>2018-12-28T12:05:20Z</time>
      </trkpt>
      <trkpt lat="36.491430" lon="-118.825710">
        <ele>530.650</ele>
        <time>2018-12-28T12:05:40Z</time>
      </trkpt>
      <trkpt lat="36.491390" lon="-118.825720">
        <ele>529.835</ele>
        <time>2018-12-28T12:06:00Z</time>
      </trkpt>
      <trkpt lat="36.491360" lon="-118.825720">
        <ele>529.225</ele>
        <time>2018-12-28T12:06:20Z</time>
      </trkpt>
      <trkpt lat="36.491300" lon="-118.825730">
        <ele>527.949</ele>
        <time>2018-12-28T12:06:40Z</time>
      </trkpt>
      <trkpt lat="36.491140" lon="-118.825770">
        <ele>526.162</ele>
        <time>2018-12-28T12:07:00Z</time>
      </trkpt>
      <trkpt lat="36.491130" lon="-118.825780">
        <ele>526.023</ele>
        <time>2018-12-28T12:07:20Z</time>
      </trkpt>
      <trkpt lat="36.491090" lon="-118.825800">
        <ele>525.756</ele>
        <time>2018-12-28T12:07:40Z</time>
      </trkpt>
      <trkpt lat="36.491050" lon="-118.825820">
        <ele>525.323</ele>
        <time>2018-12-28T12:08:00Z</time>
      </trkpt>
      <trkpt lat="36.490990" lon="-118.825850">
        <ele>524.683</ele>
        <time>2018-12-28T12:08:20Z</time>
      </trkpt>
      <trkpt lat="36.490980" lon="-118.825860">
        <ele>524.511</ele>
        <time>2018-12-28T12:08:40Z</time>
      </trkpt>
      <trkpt lat="36.490930" lon="-118.825890">
        <ele>524.108</ele>
        <time>2018-12-28T12:09:00Z</time>
      </trkpt>
      <trkpt lat="36.490890" lon="-118.825920">
        <ele>523.785</ele>
        <time>2018-12-28T12:09:20Z</time>
      </trkpt>
      <trkpt lat="36.490830" lon="-118.825950">
        <ele>523.263</ele>
        <time>2018-12-28T12:09:40Z</time>
      </trkpt>
      <trkpt lat="36.490760" lon="-118.826000">
        <ele>522.718</ele>
        <time>2018-12-28T12:10:00Z</time>
      </trkpt>
      <trkpt lat="36.490720" lon="-118.826030">
        <ele>522.438</ele>
        <time>2018-12-28T12:10:20Z</time>
      </trkpt>
      <trkpt lat="36.490680" lon="-118.826070">
        <ele>522.022</ele>
        <time>2018-12-28T12:10:40Z</time>
      </trkpt>
      <trkpt lat="36.490650" lon="-118.826100">
        <ele>521.875</ele>
        <time>2018-12-28T12:11:00Z</time>
      </trkpt>
      <trkpt lat="36.490610" lon="-118.826150">
        <ele>521.696</ele>
        <time>2018-12-28T12:11:20Z</time>
      </trkpt>
      <trkpt lat="36.490610" lon="-118.826160">
        <ele>521.649</ele>
        <time>2018-12-28T12:11:40Z</time>
      </trkpt>
      <trkpt lat="36.490550" lon="-118.826260">
        <ele>521.248</ele>
        <time>2018-12-28T12:12:00Z</time>
      </trkpt>
      <trkpt lat="36.490530" lon="-118.826330">
        <ele>521.161</ele>
        <time>2018-12-28T12:12:20Z</time>
      </trkpt>
      <trkpt lat="36.490500" lon="-118.826420">
        <ele>521.017</ele>
        <time>2018-12-28T12:12:40Z</time>
      </trkpt>
      <trkpt lat="36.490490" lon="-118.826480">
        <ele>520.908</ele>
        <time>2018-12-28T12:13:00Z</time>
      </trkpt>
      <trkpt lat="36.490480" lon="-118.826520">
        <ele>520.957</ele>
        <time>2018-12-28T12:13:20Z</time>
      </trkpt>
      <trkpt lat="36.490480" lon="-118.826640">
        <ele>521.075</ele>
        <time>2018-12-28T12:13:40Z</time>
      </trkpt>
      <trkpt lat="36.490470" lon="-118.826720">
        <ele>521.090</ele>
        <time>2018-12-28T12:14:00Z</time>
      </trkpt>
      <trkpt lat="36.490470" lon="-118.826860">
        <ele>521.030</ele>
        <time>2018-12-28T12:14:20Z</time>
      </trkpt>
      <trkpt lat="36.490450" lon="-118.827960">
        <ele>511.874</ele>
        <time>2018-12-28T12:14:40Z</time>
      </trkpt>
      <trkpt lat="36.490450" lon="-118.828100">
        <ele>511.567</ele>
        <time>2018-12-28T12:15:00Z</time>
      </trkpt>
      <trkpt lat="36.490450" lon="-118.828350">
        <ele>511.588</ele>
        <time>2018-12-28T12:15:20Z</time>
      </trkpt>
      <trkpt lat="36.490450" lon="-118.828530">
        <ele>511.391</ele>
        <time>2018-12-28T12:15:40Z</time>
      </trkpt>
      <trkpt lat="36.490450" lon="-118.828630">
        <ele>510.968</ele>
        <time>2018-12-28T12:16:00Z</time>
      </trkpt>
      <trkpt lat="36.490460" lon="-118.828680">
        <ele>510.842</ele>
        <time>2018-12-28T12:16:20Z</time>
      </trkpt>
      <trkpt lat="36.490470" lon="-118.828760">
        <ele>510.426</ele>
        <time>2018-12-28T12:16:40Z</time>
      </trkpt>
      <trkpt lat="36.490490" lon="-118.828840">
        <ele>509.908</ele>
        <time>2018-12-28T12:17:00Z</time>
      </trkpt>
      <trkpt lat="36.490520" lon="-118.828920">
        <ele>509.499</ele>
        <time>2018-12-28T12:17:20Z</time>
      </trkpt>
      <trkpt lat="36.490550" lon="-118.828980">
        <ele>509.067</ele>
        <time>2018-12-28T12:17:40Z</time>
      </trkpt>
      <trkpt lat="36.490570" lon="-118.829030">
        <ele>508.682</ele>
        <time>2018-12-28T12:18:00Z</time>
      </trkpt>
      <trkpt lat="36.490610" lon="-118.829080">
        <ele>508.052</ele>
        <time>2018-12-28T12:18:20Z</time>
      </trkpt>
      <trkpt lat="36.490630" lon="-118.829110">
        <ele>507.636</ele>
        <time>2018-12-28T12:18:40Z</time>
      </trkpt>
      <trkpt lat="36.490660" lon="-118.829150">
        <ele>507.169</ele>
        <time>2018-12-28T12:19:00Z</time>
      </trkpt>
      <trkpt lat="36.490690" lon="-118.829190">
        <ele>506.760</ele>
        <time>2018-12-28T12:19:20Z</time>
      </trkpt>
      <trkpt lat="36.490730" lon="-118.829220">
        <ele>506.523</ele>
        <time>2018-12-28T12:19:40Z</time>
      </trkpt>
      <trkpt lat="36.490800" lon="-118.829280">
        <ele>506.094</ele>
        <time>2018-12-28T12:20:00Z</time>
      </trkpt>
      <trkpt lat="36.490880" lon="-118.829330">
        <ele>505.857</ele>
        <time>2018-12-28T12:20:20Z</time>
      </trkpt>
      <trkpt lat="36.490970" lon="-118.829400">
        <ele>505.322</ele>
        <time>2018-12-28T12:20:40Z</time>
      </trkpt>
      <trkpt lat="36.491030" lon="-118.829460">
        <ele>504.908</ele>
        <time>2018-12-28T12:21:00Z</time>
      </trkpt>
      <trkpt lat="36.491090" lon="-118.829530">
        <ele>504.642</ele>
        <time>2018-12-28T12:21:20Z</time>
      </trkpt>
      <trkpt lat="36.491130" lon="-118.829590">
        <ele>504.310</ele>
        <time>2018-12-28T12:21:40Z</time>
      </trkpt>
      <trkpt lat="36.491180" lon="-118.829670">
        <ele>504.375</ele>
        <time>2018-12-28T12:22:00Z</time>
      </trkpt>
      <trkpt lat="36.491210" lon="-118.829720">
        <ele>504.275</ele>
        <time>2018-12-28T12:22:20Z</time>
      </trkpt>
      <trkpt lat="36.491240" lon="-118.829800">
        <ele>504.079</ele>
        <time>2018-12-28T12:22:40Z</time>
      </trkpt>
      <trkpt lat="36.491270" lon="-118.829900">
        <ele>503.932</ele>
        <time>2018-12-28T12:23:00Z</time>
      </trkpt>
      <trkpt lat="36.491300" lon="-118.829990">
        <ele>504.173</ele>
        <time>2018-12-28T12:23:20Z</time>
      </trkpt>
      <trkpt lat="36.491310" lon="-118.830060">
        <ele>504.016</ele>
        <time>2018-12-28T12:23:40Z</time>
      </trkpt>
      <trkpt lat="36.491330" lon="-118.830150">
        <ele>503.933</ele>
        <time>2018-12-28T12:24:00Z</time>
      </trkpt>
      <trkpt lat="36.491330" lon="-118.830250">
        <ele>503.423</ele>
        <time>2018-12-28T12:24:20Z</time>
      </trkpt>
      <trkpt lat="36.491330" lon="-118.830340">
        <ele>503.015</ele>
        <time>2018-12-28T12:24:40Z</time>
      </trkpt>
      <trkpt lat="36.491320" lon="-118.830610">
        <ele>500.708</ele>
        <time>2018-12-28T12:25:00Z</time>
      </trkpt>
      <trkpt lat="36.491300" lon="-118.831410">
        <ele>494.946</ele>
        <time>2018-12-28T12:25:20Z</time>
      </trkpt>
      <trkpt lat="36.491290" lon="-118.831490">
        <ele>494.024</ele>
        <time>2018-12-28T12:25:40Z</time>
      </trkpt>
      <trkpt lat="36.491280" lon="-118.831560">
        <ele>493.169</ele>
        <time>2018-12-28T12:26:00Z</time>
      </trkpt>
      <trkpt lat="36.491270" lon="-118.831640">
        <ele>491.719</ele>
        <time>2018-12-28T12:26:20Z</time>
      </trkpt>
      <trkpt lat="36.491260" lon="-118.831720">
        <ele>490.443</ele>
        <time>2018-12-28T12:26:40Z</time>
      </trkpt>
      <trkpt lat="36.491240" lon="-118.831800">
        <ele>489.126</ele>
        <time>2018-12-28T12:27:00Z</time>
      </trkpt>
      <trkpt lat="36.491220" lon="-118.831850">
        <ele>489.087</ele>
        <time>2018-12-28T12:27:20Z</time>
      </trkpt>
      <trkpt lat="36.491200" lon="-118.831920">
        <ele>489.160</ele>
        <time>2018-12-28T12:27:40Z</time>
      </trkpt>
      <trkpt lat="36.491180" lon="-118.831990">
        <ele>489.397</ele>
        <time>2018-12-28T12:28:00Z</time>
      </trkpt>
      <trkpt lat="36.491140" lon="-118.832080">
        <ele>490.123</ele>
        <time>2018-12-28T12:28:20Z</time>
      </trkpt>
      <trkpt lat="36.490960" lon="-118.832380">
        <ele>496.625</ele>
        <time>2018-12-28T12:28:40Z</time>
      </trkpt>
      <trkpt lat="36.490920" lon="-118.832450">
        <ele>495.108</ele>
        <time>2018-12-28T12:29:00Z</time>
      </trkpt>
      <trkpt lat="36.490870" lon="-118.832510">
        <ele>493.472</ele>
        <time>2018-12-28T12:29:20Z</time>
      </trkpt>
      <trkpt lat="36.490830" lon="-118.832570">
        <ele>491.950</ele>
        <time>2018-12-28T12:29:40Z</time>
      </trkpt>
      <trkpt lat="36.490800" lon="-118.832610">
        <ele>490.745</ele>
        <time>2018-12-28T12:30:00Z</time>
      </trkpt>
      <trkpt lat="36.490700" lon="-118.832710">
        <ele>488.425</ele>
        <time>2018-12-28T12:30:20Z</time>
      </trkpt>
      <trkpt lat="36.490460" lon="-118.832930">
        <ele>487.869</ele>
        <time>2018-12-28T12:30:40Z</time>
      </trkpt>
      <trkpt lat="36.490360" lon="-118.833010">
        <ele>487.962</ele>
        <time>2018-12-28T12:31:00Z</time>
      </trkpt>
      <trkpt lat="36.490290" lon="-118.833070">
        <ele>487.573</ele>
        <time>2018-12-28T12:31:20Z</time>
      </trkpt>
      <trkpt lat="36.490260" lon="-118.833110">
        <ele>487.676</ele>
        <time>2018-12-28T12:31:40Z</time>
      </trkpt>
      <trkpt lat="36.490210" lon="-118.833160">
        <ele>487.279</ele>
        <time>2018-12-28T12:32:00Z</time>
      </trkpt>
      <trkpt lat="36.490190" lon="-118.833200">
        <ele>487.305</ele>
        <time>2018-12-28T12:32:20Z</time>
      </trkpt>
      <trkpt lat="36.490160" lon="-118.833230">
        <ele>486.825</ele>
        <time>2018-12-28T12:32:40Z</time>
      </trkpt>
      <trkpt lat="36.490130" lon="-118.833280">
        <ele>486.508</ele>
        <time>2018-12-28T12:33:00Z</time>
      </trkpt>
      <trkpt lat="36.490100" lon="-118.833340">
        <ele>486.140</ele>
        <time>2018-12-28T12:33:20Z</time>
      </trkpt>
      <trkpt lat="36.490080" lon="-118.833390">
        <ele>486.028</ele>
        <time>2018-12-28T12:33:40Z</time>
      </trkpt>
      <trkpt lat="36.490060" lon="-118.833440">
        <ele>485.713</ele>
        <time>2018-12-28T12:34:00Z</time>
      </trkpt>
      <trkpt lat="36.490040" lon="-118.833490">
        <ele>485.073</ele>
        <time>2018-12-28T12:34:20Z</time>
      </trkpt>
      <trkpt lat="36.490030" lon="-118.833560">
        <ele>483.757</ele>
        <time>2018-12-28T12:34:40Z</time>
      </trkpt>
      <trkpt lat="36.490020" lon="-118.833630">
        <ele>482.370</ele>
        <time>2018-12-28T12:35:00Z</time>
      </trkpt>
      <trkpt lat="36.490000" lon="-118.833700">
        <ele>480.431</ele>
        <time>2018-12-28T12:35:20Z</time>
      </trkpt>
      <trkpt lat="36.489990" lon="-118.833800">
        <ele>479.254</ele>
        <time>2018-12-28T12:35:40Z</time>
      </trkpt>
      <trkpt lat="36.489980" lon="-118.833890">
        <ele>478.616</ele>
        <time>2018-12-28T12:36:00Z</time>
      </trkpt>
      <trkpt lat="36.489960" lon="-118.834040">
        <ele>477.976</ele>
        <time>2018-12-28T12:36:20Z</time>
      </trkpt>
      <trkpt lat="36.489940" lon="-118.834120">
        <ele>478.113</ele>
        <time>2018-12-28T12:36:40Z</time>
      </trkpt>
      <trkpt lat="36.489920" lon="-118.834210">
        <ele>478.208</ele>
        <time>2018-12-28T12:37:00Z</time>
      </trkpt>
      <trkpt lat="36.489900" lon="-118.834300">
        <ele>478.244</ele>
        <time>2018-12-28T12:37:20Z</time>
      </trkpt>
      <trkpt lat="36.489870" lon="-118.834370">
        <ele>477.042</ele>
        <time>2018-12-28T12:37:40Z</time>
      </trkpt>
      <trkpt lat="36.489830" lon="-118.834460">
        <ele>476.057</ele>
        <time>2018-12-28T12:38:00Z</time>
      </trkpt>
      <trkpt lat="36.489790" lon="-118.834540">
        <ele>475.127</ele>
        <time>2018-12-28T12:38:20Z</time>
      </trkpt>
      <trkpt lat="36.489750" lon="-118.834610">
        <ele>474.831</ele>
        <time>2018-12-28T12:38:40Z</time>
      </trkpt>
      <trkpt lat="36.489710" lon="-118.834670">
        <ele>475.324</ele>
        <time>2018-12-28T12:39:00Z</time>
      </trkpt>
      <trkpt lat="36.489670" lon="-118.834720">
        <ele>475.495</ele>
        <time>2018-12-28T12:39:20Z</time>
      </trkpt>
      <trkpt lat="36.489610" lon="-118.834780">
        <ele>475.178</ele>
        <time>2018-12-28T12:39:40Z</time>
      </trkpt>
      <trkpt lat="36.489550" lon="-118.834840">
        <ele>475.054</ele>
        <time>2018-12-28T12:40:00Z</time>
      </trkpt>
      <trkpt lat="36.489500" lon="-118.834900">
        <ele>475.956</ele>
        <time>2018-12-28T12:40:20Z</time>
      </trkpt>
      <trkpt lat="36.489440" lon="-118.834950">
        <ele>475.911</ele>
        <time>2018-12-28T12:40:40Z</time>
      </trkpt>
      <trkpt lat="36.489390" lon="-118.835000">
        <ele>475.808</ele>
        <time>2018-12-28T12:41:00Z</time>
      </trkpt>
      <trkpt lat="36.489270" lon="-118.835100">
        <ele>474.168</ele>
        <time>2018-12-28T12:41:20Z</time>
      </trkpt>
      <trkpt lat="36.489220" lon="-118.835160">
        <ele>473.686</ele>
        <time>2018-12-28T12:41:40Z</time>
      </trkpt>
      <trkpt lat="36.489180" lon="-118.835210">
        <ele>472.741</ele>
        <time>2018-12-28T12:42:00Z</time>
      </trkpt>
      <trkpt lat="36.489130" lon="-118.835280">
        <ele>471.731</ele>
        <time>2018-12-28T12:42:20Z</time>
      </trkpt>
      <trkpt lat="36.489100" lon="-118.835330">
        <ele>471.175</ele>
        <time>2018-12-28T12:42:40Z</time>
      </trkpt>
      <trkpt lat="36.489080" lon="-118.835370">
        <ele>470.898</ele>
        <time>2018-12-28T12:43:00Z</time>
      </trkpt>
      <trkpt lat="36.489060" lon="-118.835400">
        <ele>470.589</ele>
        <time>2018-12-28T12:43:20Z</time>
      </trkpt>
      <trkpt lat="36.489030" lon="-118.835490">
        <ele>469.852</ele>
        <time>2018-12-28T12:43:40Z</time>
      </trkpt>
      <trkpt lat="36.489000" lon="-118.835560">
        <ele>469.331</ele>
        <time>2018-12-28T12:44:00Z</time>
      </trkpt>
      <trkpt lat="36.488970" lon="-118.835670">
        <ele>468.961</ele>
        <time>2018-12-28T12:44:20Z</time>
      </trkpt>
      <trkpt lat="36.488950" lon="-118.835790">
        <ele>468.507</ele>
        <time>2018-12-28T12:44:40Z</time>
      </trkpt>
      <trkpt lat="36.488930" lon="-118.835890">
        <ele>467.708</ele>
        <time>2018-12-28T12:45:00Z</time>
      </trkpt>
      <trkpt lat="36.488900" lon="-118.836010">
        <ele>466.376</ele>
        <time>2018-12-28T12:45:20Z</time>
      </trkpt>
      <trkpt lat="36.488870" lon="-118.836140">
        <ele>465.314</ele>
        <time>2018-12-28T12:45:40Z</time>
      </trkpt>
      <trkpt lat="36.488850" lon="-118.836220">
        <ele>464.839</ele>
        <time>2018-12-28T12:46:00Z</time>
      </trkpt>
      <trkpt lat="36.488830" lon="-118.836300">
        <ele>464.219</ele>
        <time>2018-12-28T12:46:20Z</time>
      </trkpt>
      <trkpt lat="36.488790" lon="-118.836390">
        <ele>463.073</ele>
        <time>2018-12-28T12:46:40Z</time>
      </trkpt>
      <trkpt lat="36.488770" lon="-118.836430">
        <ele>462.576</ele>
        <time>2018-12-28T12:47:00Z</time>
      </trkpt>
      <trkpt lat="36.488740" lon="-118.836480">
        <ele>461.897</ele>
        <time>2018-12-28T12:47:20Z</time>
      </trkpt>
      <trkpt lat="36.488700" lon="-118.836540">
        <ele>461.560</ele>
        <time>2018-12-28T12:47:40Z</time>
      </trkpt>
      <trkpt lat="36.488660" lon="-118.836600">
        <ele>461.597</ele>
        <time>2018-12-28T12:48:00Z</time>
      </trkpt>
      <trkpt lat="36.488610" lon="-118.836650">
        <ele>461.123</ele>
        <time>2018-12-28T12:48:20Z</time>
      </trkpt>
      <trkpt lat="36.488500" lon="-118.836760">
        <ele>459.725</ele>
        <time>2018-12-28T12:48:40Z</time>
      </trkpt>
      <trkpt lat="36.488420" lon="-118.836800">
        <ele>458.508</ele>
        <time>2018-12-28T12:49:00Z</time>
      </trkpt>
      <trkpt lat="36.488370" lon="-118.836820">
        <ele>457.682</ele>
        <time>2018-12-28T12:49:20Z</time>
      </trkpt>
      <trkpt lat="36.488320" lon="-118.836840">
        <ele>456.650</ele>
        <time>2018-12-28T12:49:40Z</time>
      </trkpt>
      <trkpt lat="36.488270" lon="-118.836860">
        <ele>455.615</ele>
        <time>2018-12-28T12:50:00Z</time>
      </trkpt>
      <trkpt lat="36.488220" lon="-118.836870">
        <ele>454.825</ele>
        <time>2018-12-28T12:50:20Z</time>
      </trkpt>
      <trkpt lat="36.488180" lon="-118.836870">
        <ele>454.469</ele>
        <time>2018-12-28T12:50:40Z</time>
      </trkpt>
      <trkpt lat="36.488120" lon="-118.836880">
        <ele>453.912</ele>
        <time>2018-12-28T12:51:00Z</time>
      </trkpt>
      <trkpt lat="36.488080" lon="-118.836880">
        <ele>453.723</ele>
        <time>2018-12-28T12:51:20Z</time>
      </trkpt>
      <trkpt lat="36.488030" lon="-118.836880">
        <ele>453.416</ele>
        <time>2018-12-28T12:51:40Z</time>
      </trkpt>
      <trkpt lat="36.487970" lon="-118.836880">
        <ele>453.095</ele>
        <time>2018-12-28T12:52:00Z</time>
      </trkpt>
      <trkpt lat="36.487530" lon="-118.836820">
        <ele>456.749</ele>
        <time>2018-12-28T12:52:20Z</time>
      </trkpt>
      <trkpt lat="36.487310" lon="-118.836800">
        <ele>456.923</ele>
        <time>2018-12-28T12:52:40Z</time>
      </trkpt>
      <trkpt lat="36.487240" lon="-118.836800">
        <ele>455.208</ele>
        <time>2018-12-28T12:53:00Z</time>
      </trkpt>
      <trkpt lat="36.487180" lon="-118.836810">
        <ele>453.832</ele>
        <time>2018-12-28T12:53:20Z</time>
      </trkpt>
      <trkpt lat="36.487130" lon="-118.836810">
        <ele>452.640</ele>
        <time>2018-12-28T12:53:40Z</time>
      </trkpt>
      <trkpt lat="36.487080" lon="-118.836820">
        <ele>451.745</ele>
        <time>2018-12-28T12:54:00Z</time>
      </trkpt>
      <trkpt lat="36.487040" lon="-118.836830">
        <ele>451.575</ele>
        <time>2018-12-28T12:54:20Z</time>
      </trkpt>
      <trkpt lat="36.486980" lon="-118.836850">
        <ele>451.339</ele>
        <time>2018-12-28T12:54:40Z</time>
      </trkpt>
      <trkpt lat="36.486920" lon="-118.836870">
        <ele>451.022</ele>
        <time>2018-12-28T12:55:00Z</time>
      </trkpt>
      <trkpt lat="36.486850" lon="-118.836900">
        <ele>450.823</ele>
        <time>2018-12-28T12:55:20Z</time>
      </trkpt>
      <trkpt lat="36.486800" lon="-118.836930">
        <ele>450.766</ele>
        <time>2018-12-28T12:55:40Z</time>
      </trkpt>
      <trkpt lat="36.486760" lon="-118.836950">
        <ele>450.562</ele>
        <time>2018-12-28T12:56:00Z</time>
      </trkpt>
      <trkpt lat="36.486700" lon="-118.836990">
        <ele>450.483</ele>
        <time>2018-12-28T12:56:20Z</time>
      </trkpt>
      <trkpt lat="36.486620" lon="-118.837030">
        <ele>449.911</ele>
        <time>2018-12-28T12:56:40Z</time>
      </trkpt>
      <trkpt lat="36.486580" lon="-118.837060">
        <ele>449.808</ele>
        <time>2018-12-28T12:57:00Z</time>
      </trkpt>
      <trkpt lat="36.486550" lon="-118.837090">
        <ele>449.949</ele>
        <time>2018-12-28T12:57:20Z</time>
      </trkpt>
      <trkpt lat="36.486480" lon="-118.837150">
        <ele>449.937</ele>
        <time>2018-12-28T12:57:40Z</time>
      </trkpt>
      <trkpt lat="36.486430" lon="-118.837190">
        <ele>449.622</ele>
        <time>2018-12-28T12:58:00Z</time>
      </trkpt>
      <trkpt lat="36.486400" lon="-118.837230">
        <ele>449.882</ele>
        <time>2018-12-28T12:58:20Z</time>
      </trkpt>
      <trkpt lat="36.486360" lon="-118.837270">
        <ele>449.666</ele>
        <time>2018-12-28T12:58:40Z</time>
      </trkpt>
      <trkpt lat="36.486320" lon="-118.837310">
        <ele>449.389</ele>
        <time>2018-12-28T12:59:00Z</time>
      </trkpt>
      <trkpt lat="36.486290" lon="-118.837360">
        <ele>449.430</ele>
        <time>2018-12-28T12:59:20Z</time>
      </trkpt>
      <trkpt lat="36.486230" lon="-118.837440">
        <ele>448.853</ele>
        <time>2018-12-28T12:59:40Z</time>
      </trkpt>
      <trkpt lat="36.486130" lon="-118.837570">
        <ele>448.029</ele>
        <time>2018-12-28T13:00:00Z</time>
      </trkpt>
      <trkpt lat="36.486070" lon="-118.837640">
        <ele>447.500</ele>
        <time>2018-12-28T13:00:20Z</time>
      </trkpt>
      <trkpt lat="36.486010" lon="-118.837700">
        <ele>446.620</ele>
        <time>2018-12-28T13:00:40Z</time>
      </trkpt>
      <trkpt lat="36.485950" lon="-118.837750">
        <ele>445.908</ele>
        <time>2018-12-28T13:01:00Z</time>
      </trkpt>
      <trkpt lat="36.485910" lon="-118.837780">
        <ele>445.675</ele>
        <time>2018-12-28T13:01:20Z</time>
      </trkpt>
      <trkpt lat="36.485850" lon="-118.837820">
        <ele>445.273</ele>
        <time>2018-12-28T13:01:40Z</time>
      </trkpt>
      <trkpt lat="36.485800" lon="-118.837840">
        <ele>444.798</ele>
        <time>2018-12-28T13:02:00Z</time>
      </trkpt>
      <trkpt lat="36.485760" lon="-118.837860">
        <ele>444.428</ele>
        <time>2018-12-28T13:02:20Z</time>
      </trkpt>
      <trkpt lat="36.485730" lon="-118.837870">
        <ele>444.032</ele>
        <time>2018-12-28T13:02:40Z</time>
      </trkpt>
      <trkpt lat="36.485710" lon="-118.837870">
        <ele>443.895</ele>
        <time>2018-12-28T13:03:00Z</time>
      </trkpt>
      <trkpt lat="36.485670" lon="-118.837870">
        <ele>443.236</ele>
        <time>2018-12-28T13:03:20Z</time>
      </trkpt>
      <trkpt lat="36.485530" lon="-118.837880">
        <ele>441.379</ele>
        <time>2018-12-28T13:03:40Z</time>
      </trkpt>
      <trkpt lat="36.485240" lon="-118.837900">
        <ele>439.643</ele>
        <time>2018-12-28T13:04:00Z</time>
      </trkpt>
      <trkpt lat="36.485070" lon="-118.837900">
        <ele>439.364</ele>
        <time>2018-12-28T13:04:20Z</time>
      </trkpt>
      <trkpt lat="36.484940" lon="-118.837910">
        <ele>438.810</ele>
        <time>2018-12-28T13:04:40Z</time>
      </trkpt>
      <trkpt lat="36.484580" lon="-118.837930">
        <ele>437.508</ele>
        <time>2018-12-28T13:05:00Z</time>
      </trkpt>
      <trkpt lat="36.484470" lon="-118.837930">
        <ele>436.457</ele>
        <time>2018-12-28T13:05:20Z</time>
      </trkpt>
      <trkpt lat="36.484230" lon="-118.837940">
        <ele>434.215</ele>
        <time>2018-12-28T13:05:40Z</time>
      </trkpt>
      <trkpt lat="36.483970" lon="-118.837940">
        <ele>432.580</ele>
        <time>2018-12-28T13:06:00Z</time>
      </trkpt>
      <trkpt lat="36.483480" lon="-118.837960">
        <ele>431.490</ele>
        <time>2018-12-28T13:06:20Z</time>
      </trkpt>
      <trkpt lat="36.483270" lon="-118.837960">
        <ele>428.034</ele>
        <time>2018-12-28T13:06:40Z</time>
      </trkpt>
      <trkpt lat="36.483190" lon="-118.837960">
        <ele>426.757</ele>
        <time>2018-12-28T13:07:00Z</time>
      </trkpt>
      <trkpt lat="36.483110" lon="-118.837970">
        <ele>426.448</ele>
        <time>2018-12-28T13:07:20Z</time>
      </trkpt>
      <trkpt lat="36.483000" lon="-118.837970">
        <ele>425.671</ele>
        <time>2018-12-28T13:07:40Z</time>
      </trkpt>
      <trkpt lat="36.482930" lon="-118.837970">
        <ele>425.143</ele>
        <time>2018-12-28T13:08:00Z</time>
      </trkpt>
      <trkpt lat="36.482870" lon="-118.837980">
        <ele>425.064</ele>
        <time>2018-12-28T13:08:20Z</time>
      </trkpt>
      <trkpt lat="36.482810" lon="-118.837990">
        <ele>425.010</ele>
        <time>2018-12-28T13:08:40Z</time>
      </trkpt>
      <trkpt lat="36.482770" lon="-118.838000">
        <ele>425.008</ele>
        <time>2018-12-28T13:09:00Z</time>
      </trkpt>
      <trkpt lat="36.482710" lon="-118.838010">
        <ele>425.067</ele>
        <time>2018-12-28T13:09:20Z</time>
      </trkpt>
      <trkpt lat="36.482660" lon="-118.838020">
        <ele>425.085</ele>
        <time>2018-12-28T13:09:40Z</time>
      </trkpt>
      <trkpt lat="36.482610" lon="-118.838040">
        <ele>425.180</ele>
        <time>2018-12-28T13:10:00Z</time>
      </trkpt>
      <trkpt lat="36.482580" lon="-118.838050">
        <ele>425.180</ele>
        <time>2018-12-28T13:10:20Z</time>
      </trkpt>
      <trkpt lat="36.482560" lon="-118.838070">
        <ele>425.444</ele>
        <time>2018-12-28T13:10:40Z</time>
      </trkpt>
      <trkpt lat="36.482530" lon="-118.838080">
        <ele>425.467</ele>
        <time>2018-12-28T13:11:00Z</time>
      </trkpt>
      <trkpt lat="36.482480" lon="-118.838110">
        <ele>425.768</ele>
        <time>2018-12-28T13:11:20Z</time>
      </trkpt>
      <trkpt lat="36.482370" lon="-118.838170">
        <ele>426.411</ele>
        <time>2018-12-28T13:11:40Z</time>
      </trkpt>
      <trkpt lat="36.482310" lon="-118.838210">
        <ele>425.319</ele>
        <time>2018-12-28T13:12:00Z</time>
      </trkpt>
      <trkpt lat="36.482250" lon="-118.838230">
        <ele>423.609</ele>
        <time>2018-12-28T13:12:20Z</time>
      </trkpt>
      <trkpt lat="36.482210" lon="-118.838240">
        <ele>422.519</ele>
        <time>2018-12-28T13:12:40Z</time>
      </trkpt>
      <trkpt lat="36.482160" lon="-118.838260">
        <ele>421.208</ele>
        <time>2018-12-28T13:13:00Z</time>
      </trkpt>
      <trkpt lat="36.482100" lon="-118.838270">
        <ele>419.764</ele>
        <time>2018-12-28T13:13:20Z</time>
      </trkpt>
      <trkpt lat="36.482030" lon="-118.838280">
        <ele>419.162</ele>
        <time>2018-12-28T13:13:40Z</time>
      </trkpt>
      <trkpt lat="36.482000" lon="-118.838290">
        <ele>419.187</ele>
        <time>2018-12-28T13:14:00Z</time>
      </trkpt>
      <trkpt lat="36.481950" lon="-118.838290">
        <ele>418.827</ele>
        <time>2018-12-28T13:14:20Z</time>
      </trkpt>
      <trkpt lat="36.481910" lon="-118.838290">
        <ele>418.651</ele>
        <time>2018-12-28T13:14:40Z</time>
      </trkpt>
      <trkpt lat="36.481860" lon="-118.838280">
        <ele>418.264</ele>
        <time>2018-12-28T13:15:00Z</time>
      </trkpt>
      <trkpt lat="36.481800" lon="-118.838270">
        <ele>417.765</ele>
        <time>2018-12-28T13:15:20Z</time>
      </trkpt>
      <trkpt lat="36.481750" lon="-118.838260">
        <ele>417.028</ele>
        <time>2018-12-28T13:15:40Z</time>
      </trkpt>
      <trkpt lat="36.481710" lon="-118.838250">
        <ele>416.329</ele>
        <time>2018-12-28T13:16:00Z</time>
      </trkpt>
      <trkpt lat="36.481660" lon="-118.838230">
        <ele>415.100</ele>
        <time>2018-12-28T13:16:20Z</time>
      </trkpt>
      <trkpt lat="36.481610" lon="-118.838200">
        <ele>413.520</ele>
        <time>2018-12-28T13:16:40Z</time>
      </trkpt>
      <trkpt lat="36.481550" lon="-118.838160">
        <ele>411.708</ele>
        <time>2018-12-28T13:17:00Z</time>
      </trkpt>
      <trkpt lat="36.481470" lon="-118.838110">
        <ele>411.245</ele>
        <time>2018-12-28T13:17:20Z</time>
      </trkpt>
      <trkpt lat="36.481400" lon="-118.838060">
        <ele>411.153</ele>
        <time>2018-12-28T13:17:40Z</time>
      </trkpt>
      <trkpt lat="36.481340" lon="-118.838020">
        <ele>411.078</ele>
        <time>2018-12-28T13:18:00Z</time>
      </trkpt>
      <trkpt lat="36.481310" lon="-118.838000">
        <ele>410.948</ele>
        <time>2018-12-28T13:18:20Z</time>
      </trkpt>
      <trkpt lat="36.481260" lon="-118.837990">
        <ele>411.492</ele>
        <time>2018-12-28T13:18:40Z</time>
      </trkpt>
      <trkpt lat="36.481200" lon="-118.837970">
        <ele>411.275</ele>
        <time>2018-12-28T13:19:00Z</time>
      </trkpt>
      <trkpt lat="36.481160" lon="-118.837960">
        <ele>411.226</ele>
        <time>2018-12-28T13:19:20Z</time>
      </trkpt>
      <trkpt lat="36.481090" lon="-118.837960">
        <ele>411.529</ele>
        <time>2018-12-28T13:19:40Z</time>
      </trkpt>
      <trkpt lat="36.481030" lon="-118.837960">
        <ele>411.842</ele>
        <time>2018-12-28T13:20:00Z</time>
      </trkpt>
      <trkpt lat="36.480980" lon="-118.837970">
        <ele>412.222</ele>
        <time>2018-12-28T13:20:20Z</time>
      </trkpt>
      <trkpt lat="36.480920" lon="-118.837980">
        <ele>412.014</ele>
        <time>2018-12-28T13:20:40Z</time>
      </trkpt>
      <trkpt lat="36.480850" lon="-118.838010">
        <ele>412.108</ele>
        <time>2018-12-28T13:21:00Z</time>
      </trkpt>
      <trkpt lat="36.480710" lon="-118.838070">
        <ele>412.437</ele>
        <time>2018-12-28T13:21:20Z</time>
      </trkpt>
      <trkpt lat="36.480640" lon="-118.838110">
        <ele>411.915</ele>
        <time>2018-12-28T13:21:40Z</time>
      </trkpt>
      <trkpt lat="36.480420" lon="-118.838280">
        <ele>408.440</ele>
        <time>2018-12-28T13:22:00Z</time>
      </trkpt>
      <trkpt lat="36.480030" lon="-118.838580">
        <ele>401.170</ele>
        <time>2018-12-28T13:22:20Z</time>
      </trkpt>
      <trkpt lat="36.479860" lon="-118.838710">
        <ele>399.414</ele>
        <time>2018-12-28T13:22:40Z</time>
      </trkpt>
      <trkpt lat="36.479840" lon="-118.838740">
        <ele>399.397</ele>
        <time>2018-12-28T13:23:00Z</time>
      </trkpt>
      <trkpt lat="36.479660" lon="-118.838880">
        <ele>396.738</ele>
        <time>2018-12-28T13:23:20Z</time>
      </trkpt>
      <trkpt lat="36.479560" lon="-118.838970">
        <ele>394.791</ele>
        <time>2018-12-28T13:23:40Z</time>
      </trkpt>
      <trkpt lat="36.479190" lon="-118.839310">
        <ele>388.992</ele>
        <time>2018-12-28T13:24:00Z</time>
      </trkpt>
      <trkpt lat="36.479040" lon="-118.839470">
        <ele>388.973</ele>
        <time>2018-12-28T13:24:20Z</time>
      </trkpt>
      <trkpt lat="36.478920" lon="-118.839610">
        <ele>394.520</ele>
        <time>2018-12-28T13:24:40Z</time>
      </trkpt>
      <trkpt lat="36.478890" lon="-118.839660">
        <ele>395.708</ele>
        <time>2018-12-28T13:25:00Z</time>
      </trkpt>
      <trkpt lat="36.478860" lon="-118.839710">
        <ele>396.742</ele>
        <time>2018-12-28T13:25:20Z</time>
      </trkpt>
      <trkpt lat="36.478840" lon="-118.839740">
        <ele>397.430</ele>
        <time>2018-12-28T13:25:40Z</time>
      </trkpt>
      <trkpt lat="36.478830" lon="-118.839770">
        <ele>397.695</ele>
        <time>2018-12-28T13:26:00Z</time>
      </trkpt>
      <trkpt lat="36.478820" lon="-118.839800">
        <ele>397.865</ele>
        <time>2018-12-28T13:26:20Z</time>
      </trkpt>
      <trkpt lat="36.478810" lon="-118.839840">
        <ele>397.989</ele>
        <time>2018-12-28T13:26:40Z</time>
      </trkpt>
      <trkpt lat="36.478790" lon="-118.839900">
        <ele>398.492</ele>
        <time>2018-12-28T13:27:00Z</time>
      </trkpt>
      <trkpt lat="36.478780" lon="-118.839950">
        <ele>398.693</ele>
        <time>2018-12-28T13:27:20Z</time>
      </trkpt>
      <trkpt lat="36.478770" lon="-118.840010">
        <ele>398.746</ele>
        <time>2018-12-28T13:27:40Z</time>
      </trkpt>
      <trkpt lat="36.478770" lon="-118.840070">
        <ele>398.661</ele>
        <time>2018-12-28T13:28:00Z</time>
      </trkpt>
      <trkpt lat="36.478760" lon="-118.840140">
        <ele>398.721</ele>
        <time>2018-12-28T13:28:20Z</time>
      </trkpt>
      <trkpt lat="36.478760" lon="-118.840220">
        <ele>398.813</ele>
        <time>2018-12-28T13:28:40Z</time>
      </trkpt>
      <trkpt lat="36.478770" lon="-118.840680">
        <ele>398.908</ele>
        <time>2018-12-28T13:29:00Z</time>
      </trkpt>
      <trkpt lat="36.478780" lon="-118.840920">
        <ele>397.899</ele>
        <time>2018-12-28T13:29:20Z</time>
      </trkpt>
      <trkpt lat="36.478770" lon="-118.841100">
        <ele>396.127</ele>
        <time>2018-12-28T13:29:40Z</time>
      </trkpt>
      <trkpt lat="36.478770" lon="-118.841220">
        <ele>394.612</ele>
        <time>2018-12-28T13:30:00Z</time>
      </trkpt>
      <trkpt lat="36.478760" lon="-118.841350">
        <ele>392.892</ele>
        <time>2018-12-28T13:30:20Z</time>
      </trkpt>
      <trkpt lat="36.478750" lon="-118.841500">
        <ele>390.516</ele>
        <time>2018-12-28T13:30:40Z</time>
      </trkpt>
      <trkpt lat="36.478720" lon="-118.841670">
        <ele>389.419</ele>
        <time>2018-12-28T13:31:00Z</time>
      </trkpt>
      <trkpt lat="36.478700" lon="-118.841790">
        <ele>388.740</ele>
        <time>2018-12-28T13:31:20Z</time>
      </trkpt>
      <trkpt lat="36.478670" lon="-118.841900">
        <ele>388.513</ele>
        <time>2018-12-28T13:31:40Z</time>
      </trkpt>
      <trkpt lat="36.478650" lon="-118.841980">
        <ele>388.427</ele>
        <time>2018-12-28T13:32:00Z</time>
      </trkpt>
      <trkpt lat="36.478630" lon="-118.842070">
        <ele>388.368</ele>
        <time>2018-12-28T13:32:20Z</time>
      </trkpt>
      <trkpt lat="36.478540" lon="-118.842320">
        <ele>388.214</ele>
        <time>2018-12-28T13:32:40Z</time>
      </trkpt>
      <trkpt lat="36.478520" lon="-118.842380">
        <ele>388.108</ele>
        <time>2018-12-28T13:33:00Z</time>
      </trkpt>
      <trkpt lat="36.478500" lon="-118.842440">
        <ele>387.985</ele>
        <time>2018-12-28T13:33:20Z</time>
      </trkpt>
      <trkpt lat="36.478430" lon="-118.842570">
        <ele>387.753</ele>
        <time>2018-12-28T13:33:40Z</time>
      </trkpt>
      <trkpt lat="36.478390" lon="-118.842670">
        <ele>387.368</ele>
        <time>2018-12-28T13:34:00Z</time>
      </trkpt>
      <trkpt lat="36.478340" lon="-118.842750">
        <ele>386.958</ele>
        <time>2018-12-28T13:34:20Z</time>
      </trkpt>
      <trkpt lat="36.478310" lon="-118.842810">
        <ele>386.622</ele>
        <time>2018-12-28T13:34:40Z</time>
      </trkpt>
      <trkpt lat="36.478280" lon="-118.842860">
        <ele>386.495</ele>
        <time>2018-12-28T13:35:00Z</time>
      </trkpt>
      <trkpt lat="36.478240" lon="-118.842930">
        <ele>386.026</ele>
        <time>2018-12-28T13:35:20Z</time>
      </trkpt>
      <trkpt lat="36.478190" lon="-118.843000">
        <ele>385.879</ele>
        <time>2018-12-28T13:35:40Z</time>
      </trkpt>
      <trkpt lat="36.478130" lon="-118.843080">
        <ele>385.411</ele>
        <time>2018-12-28T13:36:00Z</time>
      </trkpt>
      <trkpt lat="36.478080" lon="-118.843150">
        <ele>385.221</ele>
        <time>2018-12-28T13:36:20Z</time>
      </trkpt>
      <trkpt lat="36.478000" lon="-118.843230">
        <ele>385.203</ele>
        <time>2018-12-28T13:36:40Z</time>
      </trkpt>
      <trkpt lat="36.477900" lon="-118.843360">
        <ele>385.008</ele>
        <time>2018-12-28T13:37:00Z</time>
      </trkpt>
      <trkpt lat="36.477810" lon="-118.843450">
        <ele>385.054</ele>
        <time>2018-12-28T13:37:20Z</time>
      </trkpt>
      <trkpt lat="36.477680" lon="-118.843600">
        <ele>384.922</ele>
        <time>2018-12-28T13:37:40Z</time>
      </trkpt>
      <trkpt lat="36.477040" lon="-118.844290">
        <ele>383.727</ele>
        <time>2018-12-28T13:38:00Z</time>
      </trkpt>
      <trkpt lat="36.476710" lon="-118.844640">
        <ele>382.317</ele>
        <time>2018-12-28T13:38:20Z</time>
      </trkpt>
      <trkpt lat="36.476400" lon="-118.844980">
        <ele>381.181</ele>
        <time>2018-12-28T13:38:40Z</time>
      </trkpt>
      <trkpt lat="36.476210" lon="-118.845180">
        <ele>381.924</ele>
        <time>2018-12-28T13:39:00Z</time>
      </trkpt>
      <trkpt lat="36.476100" lon="-118.845300">
        <ele>382.965</ele>
        <time>2018-12-28T13:39:20Z</time>
      </trkpt>
      <trkpt lat="36.476060" lon="-118.845350">
        <ele>383.328</ele>
        <time>2018-12-28T13:39:40Z</time>
      </trkpt>
      <trkpt lat="36.476030" lon="-118.845400">
        <ele>383.629</ele>
        <time>2018-12-28T13:40:00Z</time>
      </trkpt>
      <trkpt lat="36.476010" lon="-118.845450">
        <ele>383.700</ele>
        <time>2018-12-28T13:40:20Z</time>
      </trkpt>
      <trkpt lat="36.475980" lon="-118.845490">
        <ele>384.320</ele>
        <time>2018-12-28T13:40:40Z</time>
      </trkpt>
      <trkpt lat="36.475970" lon="-118.845520">
        <ele>384.408</ele>
        <time>2018-12-28T13:41:00Z</time>
      </trkpt>
      <trkpt lat="36.475950" lon="-118.845580">
        <ele>385.525</ele>
        <time>2018-12-28T13:41:20Z</time>
      </trkpt>
      <trkpt lat="36.475940" lon="-118.845660">
        <ele>385.983</ele>
        <time>2018-12-28T13:41:40Z</time>
      </trkpt>
      <trkpt lat="36.475930" lon="-118.845730">
        <ele>386.898</ele>
        <time>2018-12-28T13:42:00Z</time>
      </trkpt>
      <trkpt lat="36.475920" lon="-118.845800">
        <ele>388.298</ele>
        <time>2018-12-28T13:42:20Z</time>
      </trkpt>
      <trkpt lat="36.475930" lon="-118.845870">
        <ele>387.812</ele>
        <time>2018-12-28T13:42:40Z</time>
      </trkpt>
      <trkpt lat="36.475940" lon="-118.845940">
        <ele>387.465</ele>
        <time>2018-12-28T13:43:00Z</time>
      </trkpt>
      <trkpt lat="36.475950" lon="-118.846000">
        <ele>387.076</ele>
        <time>2018-12-28T13:43:20Z</time>
      </trkpt>
      <trkpt lat="36.475960" lon="-118.846060">
        <ele>386.979</ele>
        <time>2018-12-28T13:43:40Z</time>
      </trkpt>
      <trkpt lat="36.475990" lon="-118.846130">
        <ele>385.648</ele>
        <time>2018-12-28T13:44:00Z</time>
      </trkpt>
      <trkpt lat="36.476010" lon="-118.846170">
        <ele>385.061</ele>
        <time>2018-12-28T13:44:20Z</time>
      </trkpt>
      <trkpt lat="36.476050" lon="-118.846230">
        <ele>383.317</ele>
        <time>2018-12-28T13:44:40Z</time>
      </trkpt>
      <trkpt lat="36.476110" lon="-118.846300">
        <ele>380.808</ele>
        <time>2018-12-28T13:45:00Z</time>
      </trkpt>
      <trkpt lat="36.476180" lon="-118.846410">
        <ele>377.787</ele>
        <time>2018-12-28T13:45:20Z</time>
      </trkpt>
      <trkpt lat="36.476210" lon="-118.846490">
        <ele>376.455</ele>
        <time>2018-12-28T13:45:40Z</time>
      </trkpt>
      <trkpt lat="36.476240" lon="-118.846550">
        <ele>374.390</ele>
        <time>2018-12-28T13:46:00Z</time>
      </trkpt>
      <trkpt lat="36.476260" lon="-118.846610">
        <ele>373.680</ele>
        <time>2018-12-28T13:46:20Z</time>
      </trkpt>
      <trkpt lat="36.476260" lon="-118.846650">
        <ele>373.734</ele>
        <time>2018-12-28T13:46:40Z</time>
      </trkpt>
      <trkpt lat="36.476270" lon="-118.846690">
        <ele>373.727</ele>
        <time>2018-12-28T13:47:00Z</time>
      </trkpt>
      <trkpt lat="36.476270" lon="-118.846760">
        <ele>373.978</ele>
        <time>2018-12-28T13:47:20Z</time>
      </trkpt>
      <trkpt lat="36.476270" lon="-118.846840">
        <ele>374.081</ele>
        <time>2018-12-28T13:47:40Z</time>
      </trkpt>
      <trkpt lat="36.476270" lon="-118.846910">
        <ele>374.171</ele>
        <time>2018-12-28T13:48:00Z</time>
      </trkpt>
      <trkpt lat="36.476260" lon="-118.847080">
        <ele>374.541</ele>
        <time>2018-12-28T13:48:20Z</time>
      </trkpt>
      <trkpt lat="36.476220" lon="-118.847410">
        <ele>375.615</ele>
        <time>2018-12-28T13:48:40Z</time>
      </trkpt>
      <trkpt lat="36.476200" lon="-118.847580">
        <ele>375.808</ele>
        <time>2018-12-28T13:49:00Z</time>
      </trkpt>
      <trkpt lat="36.476180" lon="-118.847760">
        <ele>375.690</ele>
        <time>2018-12-28T13:49:20Z</time>
      </trkpt>
      <trkpt lat="36.476170" lon="-118.847820">
        <ele>375.588</ele>
        <time>2018-12-28T13:49:40Z</time>
      </trkpt>
      <trkpt lat="36.476160" lon="-118.847880">
        <ele>375.463</ele>
        <time>2018-12-28T13:50:00Z</time>
      </trkpt>
      <trkpt lat="36.476120" lon="-118.848070">
        <ele>375.423</ele>
        <time>2018-12-28T13:50:20Z</time>
      </trkpt>
      <trkpt lat="36.476070" lon="-118.848300">
        <ele>375.547</ele>
        <time>2018-12-28T13:50:40Z</time>
      </trkpt>
      <trkpt lat="36.475990" lon="-118.848650">
        <ele>375.730</ele>
        <time>2018-12-28T13:51:00Z</time>
      </trkpt>
      <trkpt lat="36.475760" lon="-118.849590">
        <ele>375.131</ele>
        <time>2018-12-28T13:51:20Z</time>
      </trkpt>
      <trkpt lat="36.475640" lon="-118.850100">
        <ele>373.564</ele>
        <time>2018-12-28T13:51:40Z</time>
      </trkpt>
      <trkpt lat="36.475540" lon="-118.850510">
        <ele>372.283</ele>
        <time>2018-12-28T13:52:00Z</time>
      </trkpt>
      <trkpt lat="36.475460" lon="-118.850860">
        <ele>371.325</ele>
        <time>2018-12-28T13:52:20Z</time>
      </trkpt>
      <trkpt lat="36.475410" lon="-118.851060">
        <ele>370.917</ele>
        <time>2018-12-28T13:52:40Z</time>
      </trkpt>
      <trkpt lat="36.475380" lon="-118.851150">
        <ele>371.108</ele>
        <time>2018-12-28T13:53:00Z</time>
      </trkpt>
      <trkpt lat="36.475350" lon="-118.851220">
        <ele>371.391</ele>
        <time>2018-12-28T13:53:20Z</time>
      </trkpt>
      <trkpt lat="36.475320" lon="-118.851300">
        <ele>370.969</ele>
        <time>2018-12-28T13:53:40Z</time>
      </trkpt>
      <trkpt lat="36.475290" lon="-118.851360">
        <ele>370.744</ele>
        <time>2018-12-28T13:54:00Z</time>
      </trkpt>
      <trkpt lat="36.475260" lon="-118.851430">
        <ele>370.374</ele>
        <time>2018-12-28T13:54:20Z</time>
      </trkpt>
      <trkpt lat="36.475220" lon="-118.851500">
        <ele>370.168</ele>
        <time>2018-12-28T13:54:40Z</time>
      </trkpt>
      <trkpt lat="36.475170" lon="-118.851560">
        <ele>370.841</ele>
        <time>2018-12-28T13:55:00Z</time>
      </trkpt>
      <trkpt lat="36.475110" lon="-118.851640">
        <ele>371.182</ele>
        <time>2018-12-28T13:55:20Z</time>
      </trkpt>
      <trkpt lat="36.475040" lon="-118.851710">
        <ele>371.235</ele>
        <time>2018-12-28T13:55:40Z</time>
      </trkpt>
      <trkpt lat="36.474990" lon="-118.851770">
        <ele>371.085</ele>
        <time>2018-12-28T13:56:00Z</time>
      </trkpt>
      <trkpt lat="36.474910" lon="-118.851850">
        <ele>371.089</ele>
        <time>2018-12-28T13:56:20Z</time>
      </trkpt>
      <trkpt lat="36.474820" lon="-118.851930">
        <ele>371.017</ele>
        <time>2018-12-28T13:56:40Z</time>
      </trkpt>
      <trkpt lat="36.474700" lon="-118.852050">
        <ele>370.308</ele>
        <time>2018-12-28T13:57:00Z</time>
      </trkpt>
      <trkpt lat="36.474570" lon="-118.852180">
        <ele>369.461</ele>
        <time>2018-12-28T13:57:20Z</time>
      </trkpt>
      <trkpt lat="36.474430" lon="-118.852330">
        <ele>369.039</ele>
        <time>2018-12-28T13:57:40Z</time>
      </trkpt>
      <trkpt lat="36.474340" lon="-118.852440">
        <ele>369.164</ele>
        <time>2018-12-28T13:58:00Z</time>
      </trkpt>
      <trkpt lat="36.473960" lon="-118.852880">
        <ele>366.464</ele>
        <time>2018-12-28T13:58:20Z</time>
      </trkpt>
      <trkpt lat="36.473820" lon="-118.853070">
        <ele>364.658</ele>
        <time>2018-12-28T13:58:40Z</time>
      </trkpt>
      <trkpt lat="36.473650" lon="-118.853300">
        <ele>363.931</ele>
        <time>2018-12-28T13:59:00Z</time>
      </trkpt>
      <trkpt lat="36.473530" lon="-118.853470">
        <ele>363.522</ele>
        <time>2018-12-28T13:59:20Z</time>
      </trkpt>
      <trkpt lat="36.473450" lon="-118.853600">
        <ele>363.335</ele>
        <time>2018-12-28T13:59:40Z</time>
      </trkpt>
      <trkpt lat="36.473300" lon="-118.853840">
        <ele>363.225</ele>
        <time>2018-12-28T14:00:00Z</time>
      </trkpt>
      <trkpt lat="36.473210" lon="-118.853980">
        <ele>363.226</ele>
        <time>2018-12-28T14:00:20Z</time>
      </trkpt>
      <trkpt lat="36.473170" lon="-118.854070">
        <ele>363.108</ele>
        <time>2018-12-28T14:00:40Z</time>
      </trkpt>
      <trkpt lat="36.473110" lon="-118.854160">
        <ele>363.208</ele>
        <time>2018-12-28T14:01:00Z</time>
      </trkpt>
      <trkpt lat="36.473060" lon="-118.854270">
        <ele>362.965</ele>
        <time>2018-12-28T14:01:20Z</time>
      </trkpt>
      <trkpt lat="36.472850" lon="-118.854680">
        <ele>360.153</ele>
        <time>2018-12-28T14:01:40Z</time>
      </trkpt>
      <trkpt lat="36.472680" lon="-118.855030">
        <ele>359.578</ele>
        <time>2018-12-28T14:02:00Z</time>
      </trkpt>
      <trkpt lat="36.472490" lon="-118.855460">
        <ele>358.928</ele>
        <time>2018-12-28T14:02:20Z</time>
      </trkpt>
      <trkpt lat="36.472400" lon="-118.855640">
        <ele>359.232</ele>
        <time>2018-12-28T14:02:40Z</time>
      </trkpt>
      <trkpt lat="36.472350" lon="-118.855760">
        <ele>359.085</ele>
        <time>2018-12-28T14:03:00Z</time>
      </trkpt>
      <trkpt lat="36.472260" lon="-118.855950">
        <ele>359.526</ele>
        <time>2018-12-28T14:03:20Z</time>
      </trkpt>
      <trkpt lat="36.472220" lon="-118.856060">
        <ele>359.949</ele>
        <time>2018-12-28T14:03:40Z</time>
      </trkpt>
      <trkpt lat="36.472190" lon="-118.856160">
        <ele>360.186</ele>
        <time>2018-12-28T14:04:00Z</time>
      </trkpt>
      <trkpt lat="36.472160" lon="-118.856250">
        <ele>360.460</ele>
        <time>2018-12-28T14:04:20Z</time>
      </trkpt>
      <trkpt lat="36.472140" lon="-118.856320">
        <ele>360.626</ele>
        <time>2018-12-28T14:04:40Z</time>
      </trkpt>
      <trkpt lat="36.472110" lon="-118.856440">
        <ele>360.808</ele>
        <time>2018-12-28T14:05:00Z</time>
      </trkpt>
      <trkpt lat="36.472090" lon="-118.856540">
        <ele>360.711</ele>
        <time>2018-12-28T14:05:20Z</time>
      </trkpt>
      <trkpt lat="36.472070" lon="-118.856650">
        <ele>361.219</ele>
        <time>2018-12-28T14:05:40Z</time>
      </trkpt>
      <trkpt lat="36.472040" lon="-118.856790">
        <ele>362.084</ele>
        <time>2018-12-28T14:06:00Z</time>
      </trkpt>
      <trkpt lat="36.472000" lon="-118.856920">
        <ele>362.134</ele>
        <time>2018-12-28T14:06:20Z</time>
      </trkpt>
      <trkpt lat="36.471970" lon="-118.857000">
        <ele>361.668</ele>
        <time>2018-12-28T14:06:40Z</time>
      </trkpt>
      <trkpt lat="36.471940" lon="-118.857060">
        <ele>361.091</ele>
        <time>2018-12-28T14:07:00Z</time>
      </trkpt>
      <trkpt lat="36.471920" lon="-118.857110">
        <ele>360.322</ele>
        <time>2018-12-28T14:07:20Z</time>
      </trkpt>
      <trkpt lat="36.471880" lon="-118.857190">
        <ele>360.095</ele>
        <time>2018-12-28T14:07:40Z</time>
      </trkpt>
      <trkpt lat="36.471820" lon="-118.857300">
        <ele>360.086</ele>
        <time>2018-12-28T14:08:00Z</time>
      </trkpt>
      <trkpt lat="36.471790" lon="-118.857350">
        <ele>360.960</ele>
        <time>2018-12-28T14:08:20Z</time>
      </trkpt>
      <trkpt lat="36.471770" lon="-118.857400">
        <ele>361.526</ele>
        <time>2018-12-28T14:08:40Z</time>
      </trkpt>
      <trkpt lat="36.471760" lon="-118.857460">
        <ele>361.108</ele>
        <time>2018-12-28T14:09:00Z</time>
      </trkpt>
      <trkpt lat="36.471740" lon="-118.857530">
        <ele>361.191</ele>
        <time>2018-12-28T14:09:20Z</time>
      </trkpt>
      <trkpt lat="36.471730" lon="-118.857600">
        <ele>360.479</ele>
        <time>2018-12-28T14:09:40Z</time>
      </trkpt>
      <trkpt lat="36.471720" lon="-118.857700">
        <ele>359.054</ele>
        <time>2018-12-28T14:10:00Z</time>
      </trkpt>
      <trkpt lat="36.471710" lon="-118.857810">
        <ele>357.434</ele>
        <time>2018-12-28T14:10:20Z</time>
      </trkpt>
      <trkpt lat="36.471690" lon="-118.857940">
        <ele>356.478</ele>
        <time>2018-12-28T14:10:40Z</time>
      </trkpt>
      <trkpt lat="36.471680" lon="-118.858010">
        <ele>356.371</ele>
        <time>2018-12-28T14:11:00Z</time>
      </trkpt>
      <trkpt lat="36.471660" lon="-118.858080">
        <ele>356.742</ele>
        <time>2018-12-28T14:11:20Z</time>
      </trkpt>
      <trkpt lat="36.471630" lon="-118.858200">
        <ele>357.085</ele>
        <time>2018-12-28T14:11:40Z</time>
      </trkpt>
      <trkpt lat="36.471600" lon="-118.858320">
        <ele>357.727</ele>
        <time>2018-12-28T14:12:00Z</time>
      </trkpt>
      <trkpt lat="36.471560" lon="-118.858440">
        <ele>358.768</ele>
        <time>2018-12-28T14:12:20Z</time>
      </trkpt>
      <trkpt lat="36.471520" lon="-118.858530">
        <ele>359.814</ele>
        <time>2018-12-28T14:12:40Z</time>
      </trkpt>
      <trkpt lat="36.471490" lon="-118.858590">
        <ele>360.108</ele>
        <time>2018-12-28T14:13:00Z</time>
      </trkpt>
      <trkpt lat="36.471460" lon="-118.858640">
        <ele>360.375</ele>
        <time>2018-12-28T14:13:20Z</time>
      </trkpt>
      <trkpt lat="36.471420" lon="-118.858700">
        <ele>360.623</ele>
        <time>2018-12-28T14:13:40Z</time>
      </trkpt>
      <trkpt lat="36.471350" lon="-118.858780">
        <ele>360.958</ele>
        <time>2018-12-28T14:14:00Z</time>
      </trkpt>
      <trkpt lat="36.471290" lon="-118.858850">
        <ele>360.838</ele>
        <time>2018-12-28T14:14:20Z</time>
      </trkpt>
      <trkpt lat="36.471210" lon="-118.858910">
        <ele>360.992</ele>
        <time>2018-12-28T14:14:40Z</time>
      </trkpt>
      <trkpt lat="36.471140" lon="-118.858950">
        <ele>361.085</ele>
        <time>2018-12-28T14:15:00Z</time>
      </trkpt>
      <trkpt lat="36.471080" lon="-118.858980">
        <ele>361.226</ele>
        <time>2018-12-28T14:15:20Z</time>
      </trkpt>
      <trkpt lat="36.471030" lon="-118.859000">
        <ele>361.459</ele>
        <time>2018-12-28T14:15:40Z</time>
      </trkpt>
      <trkpt lat="36.470970" lon="-118.859020">
        <ele>361.779</ele>
        <time>2018-12-28T14:16:00Z</time>
      </trkpt>
      <trkpt lat="36.470900" lon="-118.859040">
        <ele>361.605</ele>
        <time>2018-12-28T14:16:20Z</time>
      </trkpt>
      <trkpt lat="36.470850" lon="-118.859050">
        <ele>361.525</ele>
        <time>2018-12-28T14:16:40Z</time>
      </trkpt>
      <trkpt lat="36.470790" lon="-118.859050">
        <ele>361.608</ele>
        <time>2018-12-28T14:17:00Z</time>
      </trkpt>
      <trkpt lat="36.470650" lon="-118.859060">
        <ele>361.710</ele>
        <time>2018-12-28T14:17:20Z</time>
      </trkpt>
      <trkpt lat="36.470520" lon="-118.859070">
        <ele>361.468</ele>
        <time>2018-12-28T14:17:40Z</time>
      </trkpt>
      <trkpt lat="36.470430" lon="-118.859070">
        <ele>361.483</ele>
        <time>2018-12-28T14:18:00Z</time>
      </trkpt>
      <trkpt lat="36.470360" lon="-118.859070">
        <ele>361.153</ele>
        <time>2018-12-28T14:18:20Z</time>
      </trkpt>
      <trkpt lat="36.470300" lon="-118.859070">
        <ele>360.967</ele>
        <time>2018-12-28T14:18:40Z</time>
      </trkpt>
      <trkpt lat="36.470220" lon="-118.859060">
        <ele>360.750</ele>
        <time>2018-12-28T14:19:00Z</time>
      </trkpt>
      <trkpt lat="36.470150" lon="-118.859040">
        <ele>360.951</ele>
        <time>2018-12-28T14:19:20Z</time>
      </trkpt>
      <trkpt lat="36.470070" lon="-118.859020">
        <ele>360.914</ele>
        <time>2018-12-28T14:19:40Z</time>
      </trkpt>
      <trkpt lat="36.469990" lon="-118.859000">
        <ele>361.083</ele>
        <time>2018-12-28T14:20:00Z</time>
      </trkpt>
      <trkpt lat="36.469900" lon="-118.858960">
        <ele>361.425</ele>
        <time>2018-12-28T14:20:20Z</time>
      </trkpt>
      <trkpt lat="36.469800" lon="-118.858920">
        <ele>361.717</ele>
        <time>2018-12-28T14:20:40Z</time>
      </trkpt>
      <trkpt lat="36.469610" lon="-118.858840">
        <ele>361.608</ele>
        <time>2018-12-28T14:21:00Z</time>
      </trkpt>
      <trkpt lat="36.469530" lon="-118.858800">
        <ele>361.391</ele>
        <time>2018-12-28T14:21:20Z</time>
      </trkpt>
      <trkpt lat="36.469450" lon="-118.858770">
        <ele>360.639</ele>
        <time>2018-12-28T14:21:40Z</time>
      </trkpt>
      <trkpt lat="36.469350" lon="-118.858730">
        <ele>359.834</ele>
        <time>2018-12-28T14:22:00Z</time>
      </trkpt>
      <trkpt lat="36.469260" lon="-118.858700">
        <ele>359.854</ele>
        <time>2018-12-28T14:22:20Z</time>
      </trkpt>
      <trkpt lat="36.469160" lon="-118.858680">
        <ele>360.038</ele>
        <time>2018-12-28T14:22:40Z</time>
      </trkpt>
      <trkpt lat="36.469060" lon="-118.858660">
        <ele>360.281</ele>
        <time>2018-12-28T14:23:00Z</time>
      </trkpt>
      <trkpt lat="36.468940" lon="-118.858640">
        <ele>359.522</ele>
        <time>2018-12-28T14:23:20Z</time>
      </trkpt>
      <trkpt lat="36.468800" lon="-118.858620">
        <ele>358.285</ele>
        <time>2018-12-28T14:23:40Z</time>
      </trkpt>
      <trkpt lat="36.468710" lon="-118.858620">
        <ele>357.599</ele>
        <time>2018-12-28T14:24:00Z</time>
      </trkpt>
      <trkpt lat="36.468580" lon="-118.858620">
        <ele>357.307</ele>
        <time>2018-12-28T14:24:20Z</time>
      </trkpt>
      <trkpt lat="36.468470" lon="-118.858630">
        <ele>357.027</ele>
        <time>2018-12-28T14:24:40Z</time>
      </trkpt>
      <trkpt lat="36.468360" lon="-118.858640">
        <ele>357.508</ele>
        <time>2018-12-28T14:25:00Z</time>
      </trkpt>
      <trkpt lat="36.468230" lon="-118.858660">
        <ele>358.022</ele>
        <time>2018-12-28T14:25:20Z</time>
      </trkpt>
      <trkpt lat="36.468020" lon="-118.858720">
        <ele>357.820</ele>
        <time>2018-12-28T14:25:40Z</time>
      </trkpt>
      <trkpt lat="36.467350" lon="-118.858990">
        <ele>355.945</ele>
        <time>2018-12-28T14:26:00Z</time>
      </trkpt>
      <trkpt lat="36.466790" lon="-118.859220">
        <ele>357.015</ele>
        <time>2018-12-28T14:26:20Z</time>
      </trkpt>
      <trkpt lat="36.466660" lon="-118.859270">
        <ele>357.129</ele>
        <time>2018-12-28T14:26:40Z</time>
      </trkpt>
      <trkpt lat="36.466470" lon="-118.859360">
        <ele>357.122</ele>
        <time>2018-12-28T14:27:00Z</time>
      </trkpt>
      <trkpt lat="36.466310" lon="-118.859420">
        <ele>357.343</ele>
        <time>2018-12-28T14:27:20Z</time>
      </trkpt>
      <trkpt lat="36.466200" lon="-118.859470">
        <ele>357.076</ele>
        <time>2018-12-28T14:27:40Z</time>
      </trkpt>
      <trkpt lat="36.466010" lon="-118.859550">
        <ele>355.628</ele>
        <time>2018-12-28T14:28:00Z</time>
      </trkpt>
      <trkpt lat="36.465910" lon="-118.859600">
        <ele>354.889</ele>
        <time>2018-12-28T14:28:20Z</time>
      </trkpt>
      <trkpt lat="36.465820" lon="-118.859650">
        <ele>354.117</ele>
        <time>2018-12-28T14:28:40Z</time>
      </trkpt>
      <trkpt lat="36.465780" lon="-118.859680">
        <ele>353.608</ele>
        <time>2018-12-28T14:29:00Z</time>
      </trkpt>
      <trkpt lat="36.465660" lon="-118.859780">
        <ele>352.675</ele>
        <time>2018-12-28T14:29:20Z</time>
      </trkpt>
      <trkpt lat="36.465580" lon="-118.859870">
        <ele>352.073</ele>
        <time>2018-12-28T14:29:40Z</time>
      </trkpt>
      <trkpt lat="36.465510" lon="-118.859970">
        <ele>351.668</ele>
        <time>2018-12-28T14:30:00Z</time>
      </trkpt>
      <trkpt lat="36.465450" lon="-118.860070">
        <ele>351.388</ele>
        <time>2018-12-28T14:30:20Z</time>
      </trkpt>
      <trkpt lat="36.465390" lon="-118.860180">
        <ele>351.112</ele>
        <time>2018-12-28T14:30:40Z</time>
      </trkpt>
      <trkpt lat="36.465290" lon="-118.860360">
        <ele>350.975</ele>
        <time>2018-12-28T14:31:00Z</time>
      </trkpt>
      <trkpt lat="36.465190" lon="-118.860580">
        <ele>350.736</ele>
        <time>2018-12-28T14:31:20Z</time>
      </trkpt>
      <trkpt lat="36.465120" lon="-118.860740">
        <ele>350.729</ele>
        <time>2018-12-28T14:31:40Z</time>
      </trkpt>
      <trkpt lat="36.465050" lon="-118.860930">
        <ele>350.167</ele>
        <time>2018-12-28T14:32:00Z</time>
      </trkpt>
      <trkpt lat="36.465020" lon="-118.861050">
        <ele>349.681</ele>
        <time>2018-12-28T14:32:20Z</time>
      </trkpt>
      <trkpt lat="36.465010" lon="-118.861130">
        <ele>349.219</ele>
        <time>2018-12-28T14:32:40Z</time>
      </trkpt>
      <trkpt lat="36.464990" lon="-118.861240">
        <ele>348.708</ele>
        <time>2018-12-28T14:33:00Z</time>
      </trkpt>
      <trkpt lat="36.464970" lon="-118.861360">
        <ele>348.339</ele>
        <time>2018-12-28T14:33:20Z</time>
      </trkpt>
      <trkpt lat="36.464960" lon="-118.861440">
        <ele>348.037</ele>
        <time>2018-12-28T14:33:40Z</time>
      </trkpt>
      <trkpt lat="36.464940" lon="-118.861530">
        <ele>347.742</ele>
        <time>2018-12-28T14:34:00Z</time>
      </trkpt>
      <trkpt lat="36.464900" lon="-118.861650">
        <ele>347.612</ele>
        <time>2018-12-28T14:34:20Z</time>
      </trkpt>
      <trkpt lat="36.464880" lon="-118.861710">
        <ele>347.636</ele>
        <time>2018-12-28T14:34:40Z</time>
      </trkpt>
      <trkpt lat="36.464850" lon="-118.861760">
        <ele>347.739</ele>
        <time>2018-12-28T14:35:00Z</time>
      </trkpt>
      <trkpt lat="36.464810" lon="-118.861840">
        <ele>347.820</ele>
        <time>2018-12-28T14:35:20Z</time>
      </trkpt>
      <trkpt lat="36.464690" lon="-118.862050">
        <ele>348.153</ele>
        <time>2018-12-28T14:35:40Z</time>
      </trkpt>
      <trkpt lat="36.464570" lon="-118.862260">
        <ele>347.766</ele>
        <time>2018-12-28T14:36:00Z</time>
      </trkpt>
      <trkpt lat="36.464500" lon="-118.862400">
        <ele>347.429</ele>
        <time>2018-12-28T14:36:20Z</time>
      </trkpt>
      <trkpt lat="36.464450" lon="-118.862510">
        <ele>347.421</ele>
        <time>2018-12-28T14:36:40Z</time>
      </trkpt>
      <trkpt lat="36.464420" lon="-118.862610">
        <ele>347.308</ele>
        <time>2018-12-28T14:37:00Z</time>
      </trkpt>
      <trkpt lat="36.464380" lon="-118.862740">
        <ele>347.689</ele>
        <time>2018-12-28T14:37:20Z</time>
      </trkpt>
      <trkpt lat="36.464330" lon="-118.862910">
        <ele>347.927</ele>
        <time>2018-12-28T14:37:40Z</time>
      </trkpt>
      <trkpt lat="36.464310" lon="-118.863060">
        <ele>347.882</ele>
        <time>2018-12-28T14:38:00Z</time>
      </trkpt>
      <trkpt lat="36.464280" lon="-118.863260">
        <ele>348.032</ele>
        <time>2018-12-28T14:38:20Z</time>
      </trkpt>
      <trkpt lat="36.464280" lon="-118.863450">
        <ele>348.096</ele>
        <time>2018-12-28T14:38:40Z</time>
      </trkpt>
      <trkpt lat="36.464280" lon="-118.863580">
        <ele>348.669</ele>
        <time>2018-12-28T14:39:00Z</time>
      </trkpt>
      <trkpt lat="36.464290" lon="-118.863720">
        <ele>349.360</ele>
        <time>2018-12-28T14:39:20Z</time>
      </trkpt>
      <trkpt lat="36.464320" lon="-118.863890">
        <ele>350.243</ele>
        <time>2018-12-28T14:39:40Z</time>
      </trkpt>
      <trkpt lat="36.464380" lon="-118.864170">
        <ele>351.371</ele>
        <time>2018-12-28T14:40:00Z</time>
      </trkpt>
      <trkpt lat="36.464440" lon="-118.864370">
        <ele>351.941</ele>
        <time>2018-12-28T14:40:20Z</time>
      </trkpt>
      <trkpt lat="36.464520" lon="-118.864560">
        <ele>352.715</ele>
        <time>2018-12-28T14:40:40Z</time>
      </trkpt>
      <trkpt lat="36.464590" lon="-118.864700">
        <ele>353.008</ele>
        <time>2018-12-28T14:41:00Z</time>
      </trkpt>
      <trkpt lat="36.464660" lon="-118.864840">
        <ele>352.910</ele>
        <time>2018-12-28T14:41:20Z</time>
      </trkpt>
      <trkpt lat="36.464740" lon="-118.864960">
        <ele>352.658</ele>
        <time>2018-12-28T14:41:40Z</time>
      </trkpt>
      <trkpt lat="36.464860" lon="-118.865110">
        <ele>352.543</ele>
        <time>2018-12-28T14:42:00Z</time>
      </trkpt>
      <trkpt lat="36.464990" lon="-118.865280">
        <ele>352.153</ele>
        <time>2018-12-28T14:42:20Z</time>
      </trkpt>
      <trkpt lat="36.465170" lon="-118.865500">
        <ele>351.137</ele>
        <time>2018-12-28T14:42:40Z</time>
      </trkpt>
      <trkpt lat="36.465320" lon="-118.865680">
        <ele>350.720</ele>
        <time>2018-12-28T14:43:00Z</time>
      </trkpt>
      <trkpt lat="36.465450" lon="-118.865830">
        <ele>350.821</ele>
        <time>2018-12-28T14:43:20Z</time>
      </trkpt>
      <trkpt lat="36.465520" lon="-118.865940">
        <ele>350.634</ele>
        <time>2018-12-28T14:43:40Z</time>
      </trkpt>
      <trkpt lat="36.465560" lon="-118.866010">
        <ele>350.545</ele>
        <time>2018-12-28T14:44:00Z</time>
      </trkpt>
      <trkpt lat="36.465600" lon="-118.866080">
        <ele>350.347</ele>
        <time>2018-12-28T14:44:20Z</time>
      </trkpt>
      <trkpt lat="36.465650" lon="-118.866180">
        <ele>350.011</ele>
        <time>2018-12-28T14:44:40Z</time>
      </trkpt>
      <trkpt lat="36.465690" lon="-118.866270">
        <ele>349.508</ele>
        <time>2018-12-28T14:45:00Z</time>
      </trkpt>
      <trkpt lat="36.465720" lon="-118.866360">
        <ele>349.167</ele>
        <time>2018-12-28T14:45:20Z</time>
      </trkpt>
      <trkpt lat="36.465750" lon="-118.866430">
        <ele>348.665</ele>
        <time>2018-12-28T14:45:40Z</time>
      </trkpt>
      <trkpt lat="36.465780" lon="-118.866530">
        <ele>348.060</ele>
        <time>2018-12-28T14:46:00Z</time>
      </trkpt>
      <trkpt lat="36.465810" lon="-118.866670">
        <ele>347.620</ele>
        <time>2018-12-28T14:46:20Z</time>
      </trkpt>
      <trkpt lat="36.465830" lon="-118.866770">
        <ele>347.314</ele>
        <time>2018-12-28T14:46:40Z</time>
      </trkpt>
      <trkpt lat="36.465850" lon="-118.866900">
        <ele>347.637</ele>
        <time>2018-12-28T14:47:00Z</time>
      </trkpt>
      <trkpt lat="36.465860" lon="-118.867000">
        <ele>348.238</ele>
        <time>2018-12-28T14:47:20Z</time>
      </trkpt>
      <trkpt lat="36.465870" lon="-118.867150">
        <ele>348.781</ele>
        <time>2018-12-28T14:47:40Z</time>
      </trkpt>
      <trkpt lat="36.465870" lon="-118.867300">
        <ele>348.747</ele>
        <time>2018-12-28T14:48:00Z</time>
      </trkpt>
      <trkpt lat="36.465860" lon="-118.867370">
        <ele>348.829</ele>
        <time>2018-12-28T14:48:20Z</time>
      </trkpt>
      <trkpt lat="36.465850" lon="-118.867470">
        <ele>347.521</ele>
        <time>2018-12-28T14:48:40Z</time>
      </trkpt>
      <trkpt lat="36.465840" lon="-118.867560">
        <ele>346.408</ele>
        <time>2018-12-28T14:49:00Z</time>
      </trkpt>
      <trkpt lat="36.465810" lon="-118.867680">
        <ele>345.277</ele>
        <time>2018-12-28T14:49:20Z</time>
      </trkpt>
      <trkpt lat="36.465750" lon="-118.867840">
        <ele>344.365</ele>
        <time>2018-12-28T14:49:40Z</time>
      </trkpt>
      <trkpt lat="36.465720" lon="-118.867910">
        <ele>344.470</ele>
        <time>2018-12-28T14:50:00Z</time>
      </trkpt>
      <trkpt lat="36.465680" lon="-118.867980">
        <ele>344.170</ele>
        <time>2018-12-28T14:50:20Z</time>
      </trkpt>
      <trkpt lat="36.465610" lon="-118.868090">
        <ele>343.154</ele>
        <time>2018-12-28T14:50:40Z</time>
      </trkpt>
      <trkpt lat="36.465500" lon="-118.868190">
        <ele>343.757</ele>
        <time>2018-12-28T14:51:00Z</time>
      </trkpt>
      <trkpt lat="36.465380" lon="-118.868290">
        <ele>343.338</ele>
        <time>2018-12-28T14:51:20Z</time>
      </trkpt>
      <trkpt lat="36.464970" lon="-118.868560">
        <ele>344.751</ele>
        <time>2018-12-28T14:51:40Z</time>
      </trkpt>
      <trkpt lat="36.464900" lon="-118.868630">
        <ele>344.154</ele>
        <time>2018-12-28T14:52:00Z</time>
      </trkpt>
      <trkpt lat="36.464860" lon="-118.868670">
        <ele>343.956</ele>
        <time>2018-12-28T14:52:20Z</time>
      </trkpt>
      <trkpt lat="36.464810" lon="-118.868720">
        <ele>343.911</ele>
        <time>2018-12-28T14:52:40Z</time>
      </trkpt>
      <trkpt lat="36.464780" lon="-118.868770">
        <ele>343.508</ele>
        <time>2018-12-28T14:53:00Z</time>
      </trkpt>
      <trkpt lat="36.464740" lon="-118.868840">
        <ele>343.048</ele>
        <time>2018-12-28T14:53:20Z</time>
      </trkpt>
      <trkpt lat="36.464720" lon="-118.868910">
        <ele>342.086</ele>
        <time>2018-12-28T14:53:40Z</time>
      </trkpt>
      <trkpt lat="36.464700" lon="-118.868960">
        <ele>341.741</ele>
        <time>2018-12-28T14:54:00Z</time>
      </trkpt>
      <trkpt lat="36.464660" lon="-118.869060">
        <ele>341.591</ele>
        <time>2018-12-28T14:54:20Z</time>
      </trkpt>
      <trkpt lat="36.464640" lon="-118.869120">
        <ele>341.545</ele>
        <time>2018-12-28T14:54:40Z</time>
      </trkpt>
      <trkpt lat="36.464610" lon="-118.869170">
        <ele>342.338</ele>
        <time>2018-12-28T14:55:00Z</time>
      </trkpt>
      <trkpt lat="36.464570" lon="-118.869220">
        <ele>343.369</ele>
        <time>2018-12-28T14:55:20Z</time>
      </trkpt>
      <trkpt lat="36.464520" lon="-118.869280">
        <ele>343.332</ele>
        <time>2018-12-28T14:55:40Z</time>
      </trkpt>
      <trkpt lat="36.464460" lon="-118.869340">
        <ele>343.179</ele>
        <time>2018-12-28T14:56:00Z</time>
      </trkpt>
      <trkpt lat="36.464390" lon="-118.869390">
        <ele>343.605</ele>
        <time>2018-12-28T14:56:20Z</time>
      </trkpt>
      <trkpt lat="36.463870" lon="-118.869720">
        <ele>341.525</ele>
        <time>2018-12-28T14:56:40Z</time>
      </trkpt>
      <trkpt lat="36.463720" lon="-118.869800">
        <ele>339.708</ele>
        <time>2018-12-28T14:57:00Z</time>
      </trkpt>
      <trkpt lat="36.463310" lon="-118.870060">
        <ele>335.250</ele>
        <time>2018-12-28T14:57:20Z</time>
      </trkpt>
      <trkpt lat="36.463200" lon="-118.870130">
        <ele>334.658</ele>
        <time>2018-12-28T14:57:40Z</time>
      </trkpt>
      <trkpt lat="36.463140" lon="-118.870170">
        <ele>334.293</ele>
        <time>2018-12-28T14:58:00Z</time>
      </trkpt>
      <trkpt lat="36.463040" lon="-118.870220">
        <ele>334.183</ele>
        <time>2018-12-28T14:58:20Z</time>
      </trkpt>
      <trkpt lat="36.462990" lon="-118.870250">
        <ele>333.997</ele>
        <time>2018-12-28T14:58:40Z</time>
      </trkpt>
      <trkpt lat="36.462950" lon="-118.870260">
        <ele>334.050</ele>
        <time>2018-12-28T14:59:00Z</time>
      </trkpt>
      <trkpt lat="36.462910" lon="-118.870280">
        <ele>333.961</ele>
        <time>2018-12-28T14:59:20Z</time>
      </trkpt>
      <trkpt lat="36.462850" lon="-118.870300">
        <ele>333.334</ele>
        <time>2018-12-28T14:59:40Z</time>
      </trkpt>
      <trkpt lat="36.462830" lon="-118.870300">
        <ele>333.327</ele>
        <time>2018-12-28T15:00:00Z</time>
      </trkpt>
      <trkpt lat="36.462800" lon="-118.870300">
        <ele>333.268</ele>
        <time>2018-12-28T15:00:20Z</time>
      </trkpt>
      <trkpt lat="36.462770" lon="-118.870310">
        <ele>332.914</ele>
        <time>2018-12-28T15:00:40Z</time>
      </trkpt>
      <trkpt lat="36.462740" lon="-118.870310">
        <ele>332.808</ele>
        <time>2018-12-28T15:01:00Z</time>
      </trkpt>
      <trkpt lat="36.462670" lon="-118.870300">
        <ele>332.985</ele>
        <time>2018-12-28T15:01:20Z</time>
      </trkpt>
      <trkpt lat="36.462600" lon="-118.870290">
        <ele>332.313</ele>
        <time>2018-12-28T15:01:40Z</time>
      </trkpt>
      <trkpt lat="36.462480" lon="-118.870260">
        <ele>331.128</ele>
        <time>2018-12-28T15:02:00Z</time>
      </trkpt>
      <trkpt lat="36.462350" lon="-118.870230">
        <ele>330.058</ele>
        <time>2018-12-28T15:02:20Z</time>
      </trkpt>
      <trkpt lat="36.462240" lon="-118.870210">
        <ele>327.822</ele>
        <time>2018-12-28T15:02:40Z</time>
      </trkpt>
      <trkpt lat="36.462130" lon="-118.870200">
        <ele>325.195</ele>
        <time>2018-12-28T15:03:00Z</time>
      </trkpt>
      <trkpt lat="36.462050" lon="-118.870210">
        <ele>323.686</ele>
        <time>2018-12-28T15:03:20Z</time>
      </trkpt>
      <trkpt lat="36.461940" lon="-118.870240">
        <ele>322.929</ele>
        <time>2018-12-28T15:03:40Z</time>
      </trkpt>
      <trkpt lat="36.461860" lon="-118.870260">
        <ele>322.478</ele>
        <time>2018-12-28T15:04:00Z</time>
      </trkpt>
      <trkpt lat="36.461770" lon="-118.870280">
        <ele>321.833</ele>
        <time>2018-12-28T15:04:20Z</time>
      </trkpt>
      <trkpt lat="36.461660" lon="-118.870270">
        <ele>322.126</ele>
        <time>2018-12-28T15:04:40Z</time>
      </trkpt>
      <trkpt lat="36.461570" lon="-118.870260">
        <ele>322.408</ele>
        <time>2018-12-28T15:05:00Z</time>
      </trkpt>
      <trkpt lat="36.461470" lon="-118.870230">
        <ele>323.270</ele>
        <time>2018-12-28T15:05:20Z</time>
      </trkpt>
      <trkpt lat="36.461350" lon="-118.870200">
        <ele>323.528</ele>
        <time>2018-12-28T15:05:40Z</time>
      </trkpt>
      <trkpt lat="36.461280" lon="-118.870170">
        <ele>323.983</ele>
        <time>2018-12-28T15:06:00Z</time>
      </trkpt>
      <trkpt lat="36.461230" lon="-118.870160">
        <ele>323.953</ele>
        <time>2018-12-28T15:06:20Z</time>
      </trkpt>
      <trkpt lat="36.461170" lon="-118.870150">
        <ele>323.887</ele>
        <time>2018-12-28T15:06:40Z</time>
      </trkpt>
      <trkpt lat="36.461130" lon="-118.870150">
        <ele>323.660</ele>
        <time>2018-12-28T15:07:00Z</time>
      </trkpt>
      <trkpt lat="36.461100" lon="-118.870160">
        <ele>323.131</ele>
        <time>2018-12-28T15:07:20Z</time>
      </trkpt>
      <trkpt lat="36.461060" lon="-118.870170">
        <ele>322.694</ele>
        <time>2018-12-28T15:07:40Z</time>
      </trkpt>
      <trkpt lat="36.461020" lon="-118.870180">
        <ele>322.093</ele>
        <time>2018-12-28T15:08:00Z</time>
      </trkpt>
      <trkpt lat="36.460990" lon="-118.870200">
        <ele>321.365</ele>
        <time>2018-12-28T15:08:20Z</time>
      </trkpt>
      <trkpt lat="36.460950" lon="-118.870230">
        <ele>320.821</ele>
        <time>2018-12-28T15:08:40Z</time>
      </trkpt>
      <trkpt lat="36.460890" lon="-118.870260">
        <ele>321.208</ele>
        <time>2018-12-28T15:09:00Z</time>
      </trkpt>
      <trkpt lat="36.460830" lon="-118.870330">
        <ele>320.652</ele>
        <time>2018-12-28T15:09:20Z</time>
      </trkpt>
      <trkpt lat="36.460740" lon="-118.870430">
        <ele>319.870</ele>
        <time>2018-12-28T15:09:40Z</time>
      </trkpt>
      <trkpt lat="36.460690" lon="-118.870480">
        <ele>318.825</ele>
        <time>2018-12-28T15:10:00Z</time>
      </trkpt>
      <trkpt lat="36.460620" lon="-118.870550">
        <ele>317.885</ele>
        <time>2018-12-28T15:10:20Z</time>
      </trkpt>
      <trkpt lat="36.460560" lon="-118.870580">
        <ele>318.489</ele>
        <time>2018-12-28T15:10:40Z</time>
      </trkpt>
      <trkpt lat="36.460490" lon="-118.870620">
        <ele>319.382</ele>
        <time>2018-12-28T15:11:00Z</time>
      </trkpt>
      <trkpt lat="36.460350" lon="-118.870700">
        <ele>320.663</ele>
        <time>2018-12-28T15:11:20Z</time>
      </trkpt>
      <trkpt lat="36.460250" lon="-118.870790">
        <ele>319.576</ele>
        <time>2018-12-28T15:11:40Z</time>
      </trkpt>
      <trkpt lat="36.460150" lon="-118.870910">
        <ele>319.291</ele>
        <time>2018-12-28T15:12:00Z</time>
      </trkpt>
      <trkpt lat="36.460050" lon="-118.871060">
        <ele>316.781</ele>
        <time>2018-12-28T15:12:20Z</time>
      </trkpt>
      <trkpt lat="36.459930" lon="-118.871210">
        <ele>314.819</ele>
        <time>2018-12-28T15:12:40Z</time>
      </trkpt>
      <trkpt lat="36.459710" lon="-118.871470">
        <ele>312.008</ele>
        <time>2018-12-28T15:13:00Z</time>
      </trkpt>
      <trkpt lat="36.459660" lon="-118.871540">
        <ele>311.362</ele>
        <time>2018-12-28T15:13:20Z</time>
      </trkpt>
      <trkpt lat="36.459600" lon="-118.871660">
        <ele>310.120</ele>
        <time>2018-12-28T15:13:40Z</time>
      </trkpt>
      <trkpt lat="36.459570" lon="-118.871730">
        <ele>309.125</ele>
        <time>2018-12-28T15:14:00Z</time>
      </trkpt>
      <trkpt lat="36.459540" lon="-118.871810">
        <ele>308.055</ele>
        <time>2018-12-28T15:14:20Z</time>
      </trkpt>
      <trkpt lat="36.459500" lon="-118.871930">
        <ele>307.919</ele>
        <time>2018-12-28T15:14:40Z</time>
      </trkpt>
      <trkpt lat="36.459390" lon="-118.872320">
        <ele>307.692</ele>
        <time>2018-12-28T15:15:00Z</time>
      </trkpt>
      <trkpt lat="36.459340" lon="-118.872470">
        <ele>306.853</ele>
        <time>2018-12-28T15:15:20Z</time>
      </trkpt>
      <trkpt lat="36.459280" lon="-118.872620">
        <ele>306.256</ele>
        <time>2018-12-28T15:15:40Z</time>
      </trkpt>
      <trkpt lat="36.459230" lon="-118.872740">
        <ele>306.669</ele>
        <time>2018-12-28T15:16:00Z</time>
      </trkpt>
      <trkpt lat="36.459190" lon="-118.872820">
        <ele>306.904</ele>
        <time>2018-12-28T15:16:20Z</time>
      </trkpt>
      <trkpt lat="36.459140" lon="-118.872890">
        <ele>307.424</ele>
        <time>2018-12-28T15:16:40Z</time>
      </trkpt>
      <trkpt lat="36.459050" lon="-118.873020">
        <ele>307.808</ele>
        <time>2018-12-28T15:17:00Z</time>
      </trkpt>
      <trkpt lat="36.458800" lon="-118.873330">
        <ele>308.849</ele>
        <time>2018-12-28T15:17:20Z</time>
      </trkpt>
      <trkpt lat="36.458570" lon="-118.873610">
        <ele>310.297</ele>
        <time>2018-12-28T15:17:40Z</time>
      </trkpt>
      <trkpt lat="36.458490" lon="-118.873730">
        <ele>310.392</ele>
        <time>2018-12-28T15:18:00Z</time>
      </trkpt>
      <trkpt lat="36.458450" lon="-118.873810">
        <ele>310.132</ele>
        <time>2018-12-28T15:18:20Z</time>
      </trkpt>
      <trkpt lat="36.458400" lon="-118.873900">
        <ele>310.326</ele>
        <time>2018-12-28T15:18:40Z</time>
      </trkpt>
      <trkpt lat="36.458360" lon="-118.874000">
        <ele>310.389</ele>
        <time>2018-12-28T15:19:00Z</time>
      </trkpt>
      <trkpt lat="36.458320" lon="-118.874140">
        <ele>311.430</ele>
        <time>2018-12-28T15:19:20Z</time>
      </trkpt>
      <trkpt lat="36.458300" lon="-118.874220">
        <ele>312.223</ele>
        <time>2018-12-28T15:19:40Z</time>
      </trkpt>
      <trkpt lat="36.458290" lon="-118.874320">
        <ele>312.625</ele>
        <time>2018-12-28T15:20:00Z</time>
      </trkpt>
      <trkpt lat="36.458280" lon="-118.874440">
        <ele>313.026</ele>
        <time>2018-12-28T15:20:20Z</time>
      </trkpt>
      <trkpt lat="36.458270" lon="-118.874570">
        <ele>313.308</ele>
        <time>2018-12-28T15:20:40Z</time>
      </trkpt>
      <trkpt lat="36.458280" lon="-118.874730">
        <ele>312.608</ele>
        <time>2018-12-28T15:21:00Z</time>
      </trkpt>
      <trkpt lat="36.458270" lon="-118.874820">
        <ele>312.695</ele>
        <time>2018-12-28T15:21:20Z</time>
      </trkpt>
      <trkpt lat="36.458270" lon="-118.874920">
        <ele>312.113</ele>
        <time>2018-12-28T15:21:40Z</time>
      </trkpt>
      <trkpt lat="36.458260" lon="-118.875010">
        <ele>311.918</ele>
        <time>2018-12-28T15:22:00Z</time>
      </trkpt>
      <trkpt lat="36.458240" lon="-118.875130">
        <ele>311.628</ele>
        <time>2018-12-28T15:22:20Z</time>
      </trkpt>
      <trkpt lat="36.458210" lon="-118.875260">
        <ele>311.242</ele>
        <time>2018-12-28T15:22:40Z</time>
      </trkpt>
      <trkpt lat="36.458180" lon="-118.875370">
        <ele>311.155</ele>
        <time>2018-12-28T15:23:00Z</time>
      </trkpt>
      <trkpt lat="36.458130" lon="-118.875510">
        <ele>310.876</ele>
        <time>2018-12-28T15:23:20Z</time>
      </trkpt>
      <trkpt lat="36.458080" lon="-118.875660">
        <ele>309.949</ele>
        <time>2018-12-28T15:23:40Z</time>
      </trkpt>
      <trkpt lat="36.457950" lon="-118.875950">
        <ele>310.328</ele>
        <time>2018-12-28T15:24:00Z</time>
      </trkpt>
      <trkpt lat="36.457890" lon="-118.876180">
        <ele>310.089</ele>
        <time>2018-12-28T15:24:20Z</time>
      </trkpt>
      <trkpt lat="36.457850" lon="-118.876350">
        <ele>310.117</ele>
        <time>2018-12-28T15:24:40Z</time>
      </trkpt>
      <trkpt lat="36.457820" lon="-118.876480">
        <ele>310.108</ele>
        <time>2018-12-28T15:25:00Z</time>
      </trkpt>
      <trkpt lat="36.457800" lon="-118.876620">
        <ele>309.745</ele>
        <time>2018-12-28T15:25:20Z</time>
      </trkpt>
      <trkpt lat="36.457780" lon="-118.876790">
        <ele>308.973</ele>
        <time>2018-12-28T15:25:40Z</time>
      </trkpt>
      <trkpt lat="36.457780" lon="-118.876980">
        <ele>307.658</ele>
        <time>2018-12-28T15:26:00Z</time>
      </trkpt>
      <trkpt lat="36.457790" lon="-118.877170">
        <ele>306.998</ele>
        <time>2018-12-28T15:26:20Z</time>
      </trkpt>
      <trkpt lat="36.457790" lon="-118.877440">
        <ele>307.272</ele>
        <time>2018-12-28T15:26:40Z</time>
      </trkpt>
      <trkpt lat="36.457850" lon="-118.878820">
        <ele>308.325</ele>
        <time>2018-12-28T15:27:00Z</time>
      </trkpt>
      <trkpt lat="36.457860" lon="-118.879330">
        <ele>308.936</ele>
        <time>2018-12-28T15:27:20Z</time>
      </trkpt>
      <trkpt lat="36.457870" lon="-118.880040">
        <ele>306.619</ele>
        <time>2018-12-28T15:27:40Z</time>
      </trkpt>
      <trkpt lat="36.457870" lon="-118.880810">
        <ele>307.184</ele>
        <time>2018-12-28T15:28:00Z</time>
      </trkpt>
      <trkpt lat="36.457870" lon="-118.880970">
        <ele>307.307</ele>
        <time>2018-12-28T15:28:20Z</time>
      </trkpt>
      <trkpt lat="36.457860" lon="-118.881140">
        <ele>307.617</ele>
        <time>2018-12-28T15:28:40Z</time>
      </trkpt>
      <trkpt lat="36.457850" lon="-118.881400">
        <ele>307.708</ele>
        <time>2018-12-28T15:29:00Z</time>
      </trkpt>
      <trkpt lat="36.457820" lon="-118.881810">
        <ele>307.851</ele>
        <time>2018-12-28T15:29:20Z</time>
      </trkpt>
      <trkpt lat="36.457790" lon="-118.882200">
        <ele>308.719</ele>
        <time>2018-12-28T15:29:40Z</time>
      </trkpt>
      <trkpt lat="36.457750" lon="-118.882620">
        <ele>308.714</ele>
        <time>2018-12-28T15:30:00Z</time>
      </trkpt>
      <trkpt lat="36.457730" lon="-118.883070">
        <ele>308.944</ele>
        <time>2018-12-28T15:30:20Z</time>
      </trkpt>
      <trkpt lat="36.457690" lon="-118.883510">
        <ele>311.798</ele>
        <time>2018-12-28T15:30:40Z</time>
      </trkpt>
      <trkpt lat="36.457680" lon="-118.883710">
        <ele>313.211</ele>
        <time>2018-12-28T15:31:00Z</time>
      </trkpt>
      <trkpt lat="36.457650" lon="-118.883940">
        <ele>314.132</ele>
        <time>2018-12-28T15:31:20Z</time>
      </trkpt>
      <trkpt lat="36.457610" lon="-118.884170">
        <ele>314.595</ele>
        <time>2018-12-28T15:31:40Z</time>
      </trkpt>
      <trkpt lat="36.457570" lon="-118.884360">
        <ele>314.649</ele>
        <time>2018-12-28T15:32:00Z</time>
      </trkpt>
      <trkpt lat="36.457470" lon="-118.884740">
        <ele>315.102</ele>
        <time>2018-12-28T15:32:20Z</time>
      </trkpt>
      <trkpt lat="36.457380" lon="-118.885020">
        <ele>315.622</ele>
        <time>2018-12-28T15:32:40Z</time>
      </trkpt>
      <trkpt lat="36.457260" lon="-118.885330">
        <ele>315.708</ele>
        <time>2018-12-28T15:33:00Z</time>
      </trkpt>
      <trkpt lat="36.457200" lon="-118.885460">
        <ele>315.687</ele>
        <time>2018-12-28T15:33:20Z</time>
      </trkpt>
      <trkpt lat="36.457120" lon="-118.885650">
        <ele>315.145</ele>
        <time>2018-12-28T15:33:40Z</time>
      </trkpt>
      <trkpt lat="36.456860" lon="-118.886090">
        <ele>313.130</ele>
        <time>2018-12-28T15:34:00Z</time>
      </trkpt>
      <trkpt lat="36.456660" lon="-118.886440">
        <ele>311.130</ele>
        <time>2018-12-28T15:34:20Z</time>
      </trkpt>
      <trkpt lat="36.456420" lon="-118.886830">
        <ele>307.294</ele>
        <time>2018-12-28T15:34:40Z</time>
      </trkpt>
      <trkpt lat="36.456370" lon="-118.886890">
        <ele>306.017</ele>
        <time>2018-12-28T15:35:00Z</time>
      </trkpt>
      <trkpt lat="36.456310" lon="-118.886960">
        <ele>304.788</ele>
        <time>2018-12-28T15:35:20Z</time>
      </trkpt>
      <trkpt lat="36.456250" lon="-118.887030">
        <ele>303.691</ele>
        <time>2018-12-28T15:35:40Z</time>
      </trkpt>
      <trkpt lat="36.456110" lon="-118.887130">
        <ele>301.923</ele>
        <time>2018-12-28T15:36:00Z</time>
      </trkpt>
      <trkpt lat="36.455990" lon="-118.887200">
        <ele>301.283</ele>
        <time>2018-12-28T15:36:20Z</time>
      </trkpt>
      <trkpt lat="36.455930" lon="-118.887230">
        <ele>300.911</ele>
        <time>2018-12-28T15:36:40Z</time>
      </trkpt>
      <trkpt lat="36.455830" lon="-118.887270">
        <ele>300.208</ele>
        <time>2018-12-28T15:37:00Z</time>
      </trkpt>
      <trkpt lat="36.455710" lon="-118.887300">
        <ele>299.515</ele>
        <time>2018-12-28T15:37:20Z</time>
      </trkpt>
      <trkpt lat="36.455540" lon="-118.887360">
        <ele>298.313</ele>
        <time>2018-12-28T15:37:40Z</time>
      </trkpt>
      <trkpt lat="36.454960" lon="-118.887500">
        <ele>296.738</ele>
        <time>2018-12-28T15:38:00Z</time>
      </trkpt>
      <trkpt lat="36.454730" lon="-118.887560">
        <ele>297.238</ele>
        <time>2018-12-28T15:38:20Z</time>
      </trkpt>
      <trkpt lat="36.454590" lon="-118.887610">
        <ele>297.322</ele>
        <time>2018-12-28T15:38:40Z</time>
      </trkpt>
      <trkpt lat="36.454490" lon="-118.887640">
        <ele>296.525</ele>
        <time>2018-12-28T15:39:00Z</time>
      </trkpt>
      <trkpt lat="36.454420" lon="-118.887690">
        <ele>295.826</ele>
        <time>2018-12-28T15:39:20Z</time>
      </trkpt>
      <trkpt lat="36.454370" lon="-118.887720">
        <ele>295.319</ele>
        <time>2018-12-28T15:39:40Z</time>
      </trkpt>
      <trkpt lat="36.454340" lon="-118.887740">
        <ele>295.175</ele>
        <time>2018-12-28T15:40:00Z</time>
      </trkpt>
      <trkpt lat="36.454310" lon="-118.887770">
        <ele>294.828</ele>
        <time>2018-12-28T15:40:20Z</time>
      </trkpt>
      <trkpt lat="36.454270" lon="-118.887800">
        <ele>294.320</ele>
        <time>2018-12-28T15:40:40Z</time>
      </trkpt>
      <trkpt lat="36.454230" lon="-118.887850">
        <ele>293.708</ele>
        <time>2018-12-28T15:41:00Z</time>
      </trkpt>
      <trkpt lat="36.454200" lon="-118.887880">
        <ele>293.360</ele>
        <time>2018-12-28T15:41:20Z</time>
      </trkpt>
      <trkpt lat="36.454160" lon="-118.887940">
        <ele>292.568</ele>
        <time>2018-12-28T15:41:40Z</time>
      </trkpt>
      <trkpt lat="36.454140" lon="-118.887970">
        <ele>292.233</ele>
        <time>2018-12-28T15:42:00Z</time>
      </trkpt>
      <trkpt lat="36.454120" lon="-118.888000">
        <ele>291.863</ele>
        <time>2018-12-28T15:42:20Z</time>
      </trkpt>
      <trkpt lat="36.454100" lon="-118.888040">
        <ele>291.487</ele>
        <time>2018-12-28T15:42:40Z</time>
      </trkpt>
      <trkpt lat="36.454080" lon="-118.888090">
        <ele>290.940</ele>
        <time>2018-12-28T15:43:00Z</time>
      </trkpt>
      <trkpt lat="36.454060" lon="-118.888150">
        <ele>290.491</ele>
        <time>2018-12-28T15:43:20Z</time>
      </trkpt>
      <trkpt lat="36.454030" lon="-118.888220">
        <ele>289.824</ele>
        <time>2018-12-28T15:43:40Z</time>
      </trkpt>
      <trkpt lat="36.454010" lon="-118.888300">
        <ele>289.892</ele>
        <time>2018-12-28T15:44:00Z</time>
      </trkpt>
      <trkpt lat="36.453980" lon="-118.888430">
        <ele>289.773</ele>
        <time>2018-12-28T15:44:20Z</time>
      </trkpt>
      <trkpt lat="36.453960" lon="-118.888600">
        <ele>289.420</ele>
        <time>2018-12-28T15:44:40Z</time>
      </trkpt>
      <trkpt lat="36.453920" lon="-118.888880">
        <ele>288.508</ele>
        <time>2018-12-28T15:45:00Z</time>
      </trkpt>
      <trkpt lat="36.453850" lon="-118.889540">
        <ele>283.032</ele>
        <time>2018-12-28T15:45:20Z</time>
      </trkpt>
      <trkpt lat="36.453810" lon="-118.889860">
        <ele>279.670</ele>
        <time>2018-12-28T15:45:40Z</time>
      </trkpt>
      <trkpt lat="36.453800" lon="-118.890050">
        <ele>279.275</ele>
        <time>2018-12-28T15:46:00Z</time>
      </trkpt>
      <trkpt lat="36.453790" lon="-118.890190">
        <ele>279.115</ele>
        <time>2018-12-28T15:46:20Z</time>
      </trkpt>
      <trkpt lat="36.453800" lon="-118.890370">
        <ele>278.569</ele>
        <time>2018-12-28T15:46:40Z</time>
      </trkpt>
      <trkpt lat="36.453810" lon="-118.890490">
        <ele>278.122</ele>
        <time>2018-12-28T15:47:00Z</time>
      </trkpt>
      <trkpt lat="36.453820" lon="-118.890620">
        <ele>277.593</ele>
        <time>2018-12-28T15:47:20Z</time>
      </trkpt>
      <trkpt lat="36.453930" lon="-118.891510">
        <ele>275.636</ele>
        <time>2018-12-28T15:47:40Z</time>
      </trkpt>
      <trkpt lat="36.454000" lon="-118.892080">
        <ele>276.999</ele>
        <time>2018-12-28T15:48:00Z</time>
      </trkpt>
      <trkpt lat="36.454090" lon="-118.892750">
        <ele>277.707</ele>
        <time>2018-12-28T15:48:20Z</time>
      </trkpt>
      <trkpt lat="36.454130" lon="-118.893120">
        <ele>277.927</ele>
        <time>2018-12-28T15:48:40Z</time>
      </trkpt>
      <trkpt lat="36.454160" lon="-118.893380">
        <ele>277.908</ele>
        <time>2018-12-28T15:49:00Z</time>
      </trkpt>
      <trkpt lat="36.454170" lon="-118.893530">
        <ele>277.972</ele>
        <time>2018-12-28T15:49:20Z</time>
      </trkpt>
      <trkpt lat="36.454170" lon="-118.893670">
        <ele>277.710</ele>
        <time>2018-12-28T15:49:40Z</time>
      </trkpt>
      <trkpt lat="36.454150" lon="-118.893790">
        <ele>277.495</ele>
        <time>2018-12-28T15:50:00Z</time>
      </trkpt>
      <trkpt lat="36.454140" lon="-118.893880">
        <ele>276.325</ele>
        <time>2018-12-28T15:50:20Z</time>
      </trkpt>
      <trkpt lat="36.454110" lon="-118.893990">
        <ele>275.029</ele>
        <time>2018-12-28T15:50:40Z</time>
      </trkpt>
      <trkpt lat="36.454070" lon="-118.894080">
        <ele>273.762</ele>
        <time>2018-12-28T15:51:00Z</time>
      </trkpt>
      <trkpt lat="36.454020" lon="-118.894180">
        <ele>271.923</ele>
        <time>2018-12-28T15:51:20Z</time>
      </trkpt>
      <trkpt lat="36.453950" lon="-118.894270">
        <ele>270.576</ele>
        <time>2018-12-28T15:51:40Z</time>
      </trkpt>
      <trkpt lat="36.453890" lon="-118.894340">
        <ele>269.735</ele>
        <time>2018-12-28T15:52:00Z</time>
      </trkpt>
      <trkpt lat="36.453800" lon="-118.894430">
        <ele>269.086</ele>
        <time>2018-12-28T15:52:20Z</time>
      </trkpt>
      <trkpt lat="36.453730" lon="-118.894480">
        <ele>268.514</ele>
        <time>2018-12-28T15:52:40Z</time>
      </trkpt>
      <trkpt lat="36.453650" lon="-118.894530">
        <ele>267.808</ele>
        <time>2018-12-28T15:53:00Z</time>
      </trkpt>
      <trkpt lat="36.453560" lon="-118.894570">
        <ele>267.546</ele>
        <time>2018-12-28T15:53:20Z</time>
      </trkpt>
      <trkpt lat="36.453200" lon="-118.894710">
        <ele>264.874</ele>
        <time>2018-12-28T15:53:40Z</time>
      </trkpt>
      <trkpt lat="36.452810" lon="-118.894860">
        <ele>264.699</ele>
        <time>2018-12-28T15:54:00Z</time>
      </trkpt>
      <trkpt lat="36.452640" lon="-118.894930">
        <ele>264.799</ele>
        <time>2018-12-28T15:54:20Z</time>
      </trkpt>
      <trkpt lat="36.452520" lon="-118.894990">
        <ele>264.643</ele>
        <time>2018-12-28T15:54:40Z</time>
      </trkpt>
      <trkpt lat="36.452420" lon="-118.895060">
        <ele>264.336</ele>
        <time>2018-12-28T15:55:00Z</time>
      </trkpt>
      <trkpt lat="36.452340" lon="-118.895130">
        <ele>264.097</ele>
        <time>2018-12-28T15:55:20Z</time>
      </trkpt>
      <trkpt lat="36.452260" lon="-118.895220">
        <ele>264.080</ele>
        <time>2018-12-28T15:55:40Z</time>
      </trkpt>
      <trkpt lat="36.452170" lon="-118.895380">
        <ele>263.651</ele>
        <time>2018-12-28T15:56:00Z</time>
      </trkpt>
      <trkpt lat="36.452080" lon="-118.895550">
        <ele>262.001</ele>
        <time>2018-12-28T15:56:20Z</time>
      </trkpt>
      <trkpt lat="36.452020" lon="-118.895650">
        <ele>261.311</ele>
        <time>2018-12-28T15:56:40Z</time>
      </trkpt>
      <trkpt lat="36.451960" lon="-118.895720">
        <ele>261.108</ele>
        <time>2018-12-28T15:57:00Z</time>
      </trkpt>
      <trkpt lat="36.451910" lon="-118.895770">
        <ele>260.878</ele>
        <time>2018-12-28T15:57:20Z</time>
      </trkpt>
      <trkpt lat="36.451830" lon="-118.895850">
        <ele>260.326</ele>
        <time>2018-12-28T15:57:40Z</time>
      </trkpt>
      <trkpt lat="36.451530" lon="-118.896100">
        <ele>260.961</ele>
        <time>2018-12-28T15:58:00Z</time>
      </trkpt>
      <trkpt lat="36.451310" lon="-118.896280">
        <ele>261.721</ele>
        <time>2018-12-28T15:58:20Z</time>
      </trkpt>
      <trkpt lat="36.451140" lon="-118.896440">
        <ele>262.625</ele>
        <time>2018-12-28T15:58:40Z</time>
      </trkpt>
      <trkpt lat="36.450870" lon="-118.896740">
        <ele>263.398</ele>
        <time>2018-12-28T15:59:00Z</time>
      </trkpt>
      <trkpt lat="36.450660" lon="-118.897010">
        <ele>263.139</ele>
        <time>2018-12-28T15:59:20Z</time>
      </trkpt>
      <trkpt lat="36.450480" lon="-118.897230">
        <ele>263.172</ele>
        <time>2018-12-28T15:59:40Z</time>
      </trkpt>
      <trkpt lat="36.450310" lon="-118.897480">
        <ele>262.582</ele>
        <time>2018-12-28T16:00:00Z</time>
      </trkpt>
      <trkpt lat="36.450150" lon="-118.897740">
        <ele>261.943</ele>
        <time>2018-12-28T16:00:20Z</time>
      </trkpt>
      <trkpt lat="36.449630" lon="-118.898610">
        <ele>261.017</ele>
        <time>2018-12-28T16:00:40Z</time>
      </trkpt>
      <trkpt lat="36.449140" lon="-118.899420">
        <ele>261.008</ele>
        <time>2018-12-28T16:01:00Z</time>
      </trkpt>
      <trkpt lat="36.448930" lon="-118.899750">
        <ele>260.981</ele>
        <time>2018-12-28T16:01:20Z</time>
      </trkpt>
      <trkpt lat="36.448780" lon="-118.900000">
        <ele>260.619</ele>
        <time>2018-12-28T16:01:40Z</time>
      </trkpt>
      <trkpt lat="36.448690" lon="-118.900140">
        <ele>260.554</ele>
        <time>2018-12-28T16:02:00Z</time>
      </trkpt>
      <trkpt lat="36.448560" lon="-118.900320">
        <ele>260.024</ele>
        <time>2018-12-28T16:02:20Z</time>
      </trkpt>
      <trkpt lat="36.448410" lon="-118.900520">
        <ele>259.668</ele>
        <time>2018-12-28T16:02:40Z</time>
      </trkpt>
      <trkpt lat="36.448270" lon="-118.900680">
        <ele>259.271</ele>
        <time>2018-12-28T16:03:00Z</time>
      </trkpt>
      <trkpt lat="36.448130" lon="-118.900820">
        <ele>259.292</ele>
        <time>2018-12-28T16:03:20Z</time>
      </trkpt>
      <trkpt lat="36.448020" lon="-118.900930">
        <ele>259.155</ele>
        <time>2018-12-28T16:03:40Z</time>
      </trkpt>
      <trkpt lat="36.447870" lon="-118.901060">
        <ele>258.815</ele>
        <time>2018-12-28T16:04:00Z</time>
      </trkpt>
      <trkpt lat="36.447790" lon="-118.901130">
        <ele>258.465</ele>
        <time>2018-12-28T16:04:20Z</time>
      </trkpt>
      <trkpt lat="36.447610" lon="-118.901260">
        <ele>257.511</ele>
        <time>2018-12-28T16:04:40Z</time>
      </trkpt>
      <trkpt lat="36.447490" lon="-118.901340">
        <ele>255.708</ele>
        <time>2018-12-28T16:05:00Z</time>
      </trkpt>
      <trkpt lat="36.447360" lon="-118.901420">
        <ele>253.944</ele>
        <time>2018-12-28T16:05:20Z</time>
      </trkpt>
      <trkpt lat="36.447120" lon="-118.901550">
        <ele>251.562</ele>
        <time>2018-12-28T16:05:40Z</time>
      </trkpt>
      <trkpt lat="36.446390" lon="-118.901890">
        <ele>248.757</ele>
        <time>2018-12-28T16:06:00Z</time>
      </trkpt>
      <trkpt lat="36.445760" lon="-118.902190">
        <ele>247.357</ele>
        <time>2018-12-28T16:06:20Z</time>
      </trkpt>
      <trkpt lat="36.445380" lon="-118.902370">
        <ele>247.261</ele>
        <time>2018-12-28T16:06:40Z</time>
      </trkpt>
      <trkpt lat="36.445190" lon="-118.902450">
        <ele>247.684</ele>
        <time>2018-12-28T16:07:00Z</time>
      </trkpt>
      <trkpt lat="36.445000" lon="-118.902510">
        <ele>248.175</ele>
        <time>2018-12-28T16:07:20Z</time>
      </trkpt>
      <trkpt lat="36.444870" lon="-118.902540">
        <ele>248.698</ele>
        <time>2018-12-28T16:07:40Z</time>
      </trkpt>
      <trkpt lat="36.444700" lon="-118.902570">
        <ele>249.347</ele>
        <time>2018-12-28T16:08:00Z</time>
      </trkpt>
      <trkpt lat="36.444590" lon="-118.902600">
        <ele>249.529</ele>
        <time>2018-12-28T16:08:20Z</time>
      </trkpt>
      <trkpt lat="36.444530" lon="-118.902630">
        <ele>249.621</ele>
        <time>2018-12-28T16:08:40Z</time>
      </trkpt>
      <trkpt lat="36.444460" lon="-118.902660">
        <ele>250.108</ele>
        <time>2018-12-28T16:09:00Z</time>
      </trkpt>
      <trkpt lat="36.444410" lon="-118.902700">
        <ele>250.017</ele>
        <time>2018-12-28T16:09:20Z</time>
      </trkpt>
      <trkpt lat="36.444180" lon="-118.902860">
        <ele>249.675</ele>
        <time>2018-12-28T16:09:40Z</time>
      </trkpt>
      <trkpt lat="36.444040" lon="-118.902960">
        <ele>249.340</ele>
        <time>2018-12-28T16:10:00Z</time>
      </trkpt>
      <trkpt lat="36.443830" lon="-118.903070">
        <ele>249.080</ele>
        <time>2018-12-28T16:10:20Z</time>
      </trkpt>
      <trkpt lat="36.443140" lon="-118.903330">
        <ele>248.964</ele>
        <time>2018-12-28T16:10:40Z</time>
      </trkpt>
      <trkpt lat="36.442630" lon="-118.903530">
        <ele>249.067</ele>
        <time>2018-12-28T16:11:00Z</time>
      </trkpt>
      <trkpt lat="36.441900" lon="-118.903770">
        <ele>249.158</ele>
        <time>2018-12-28T16:11:20Z</time>
      </trkpt>
      <trkpt lat="36.440830" lon="-118.904110">
        <ele>250.251</ele>
        <time>2018-12-28T16:11:40Z</time>
      </trkpt>
      <trkpt lat="36.440660" lon="-118.904160">
        <ele>249.977</ele>
        <time>2018-12-28T16:12:00Z</time>
      </trkpt>
      <trkpt lat="36.440500" lon="-118.904210">
        <ele>249.861</ele>
        <time>2018-12-28T16:12:20Z</time>
      </trkpt>
      <trkpt lat="36.440170" lon="-118.904330">
        <ele>250.127</ele>
        <time>2018-12-28T16:12:40Z</time>
      </trkpt>
      <trkpt lat="36.440030" lon="-118.904390">
        <ele>250.108</ele>
        <time>2018-12-28T16:13:00Z</time>
      </trkpt>
      <trkpt lat="36.438620" lon="-118.905010">
        <ele>251.630</ele>
        <time>2018-12-28T16:13:20Z</time>
      </trkpt>
      <trkpt lat="36.438030" lon="-118.905280">
        <ele>250.858</ele>
        <time>2018-12-28T16:13:40Z</time>
      </trkpt>
      <trkpt lat="36.437730" lon="-118.905420">
        <ele>250.193</ele>
        <time>2018-12-28T16:14:00Z</time>
      </trkpt>
      <trkpt lat="36.437620" lon="-118.905470">
        <ele>250.033</ele>
        <time>2018-12-28T16:14:20Z</time>
      </trkpt>
      <trkpt lat="36.437510" lon="-118.905520">
        <ele>249.877</ele>
        <time>2018-12-28T16:14:40Z</time>
      </trkpt>
      <trkpt lat="36.436870" lon="-118.905800">
        <ele>248.940</ele>
        <time>2018-12-28T16:15:00Z</time>
      </trkpt>
      <trkpt lat="36.436520" lon="-118.905960">
        <ele>248.871</ele>
        <time>2018-12-28T16:15:20Z</time>
      </trkpt>
      <trkpt lat="36.436230" lon="-118.906110">
        <ele>248.894</ele>
        <time>2018-12-28T16:15:40Z</time>
      </trkpt>
      <trkpt lat="36.436080" lon="-118.906190">
        <ele>248.827</ele>
        <time>2018-12-28T16:16:00Z</time>
      </trkpt>
      <trkpt lat="36.435820" lon="-118.906350">
        <ele>248.568</ele>
        <time>2018-12-28T16:16:20Z</time>
      </trkpt>
      <trkpt lat="36.435640" lon="-118.906470">
        <ele>248.314</ele>
        <time>2018-12-28T16:16:40Z</time>
      </trkpt>
      <trkpt lat="36.435370" lon="-118.906680">
        <ele>248.208</ele>
        <time>2018-12-28T16:17:00Z</time>
      </trkpt>
      <trkpt lat="36.434940" lon="-118.907080">
        <ele>248.675</ele>
        <time>2018-12-28T16:17:20Z</time>
      </trkpt>
      <trkpt lat="36.434370" lon="-118.907620">
        <ele>250.113</ele>
        <time>2018-12-28T16:17:40Z</time>
      </trkpt>
      <trkpt lat="36.434170" lon="-118.907820">
        <ele>252.968</ele>
        <time>2018-12-28T16:18:00Z</time>
      </trkpt>
      <trkpt lat="36.434000" lon="-118.907990">
        <ele>256.238</ele>
        <time>2018-12-28T16:18:20Z</time>
      </trkpt>
      <trkpt lat="36.433830" lon="-118.908150">
        <ele>257.342</ele>
        <time>2018-12-28T16:18:40Z</time>
      </trkpt>
      <trkpt lat="36.433690" lon="-118.908290">
        <ele>259.575</ele>
        <time>2018-12-28T16:19:00Z</time>
      </trkpt>
      <trkpt lat="36.433370" lon="-118.908590">
        <ele>257.546</ele>
        <time>2018-12-28T16:19:20Z</time>
      </trkpt>
      <trkpt lat="36.432430" lon="-118.909490">
        <ele>261.639</ele>
        <time>2018-12-28T16:19:40Z</time>
      </trkpt>
      <trkpt lat="36.431490" lon="-118.910390">
        <ele>265.965</ele>
        <time>2018-12-28T16:20:00Z</time>
      </trkpt>
      <trkpt lat="36.431220" lon="-118.910660">
        <ele>268.368</ele>
        <time>2018-12-28T16:20:20Z</time>
      </trkpt>
      <trkpt lat="36.429810" lon="-118.912010">
        <ele>258.814</ele>
        <time>2018-12-28T16:20:40Z</time>
      </trkpt>
      <trkpt lat="36.429680" lon="-118.912140">
        <ele>256.008</ele>
        <time>2018-12-28T16:21:00Z</time>
      </trkpt>
      <trkpt lat="36.429470" lon="-118.912330">
        <ele>249.659</ele>
        <time>2018-12-28T16:21:20Z</time>
      </trkpt>
      <trkpt lat="36.428940" lon="-118.912840">
        <ele>248.377</ele>
        <time>2018-12-28T16:21:40Z</time>
      </trkpt>
      <trkpt lat="36.428840" lon="-118.912940">
        <ele>248.772</ele>
        <time>2018-12-28T16:22:00Z</time>
      </trkpt>
      <trkpt lat="36.428640" lon="-118.913140">
        <ele>247.822</ele>
        <time>2018-12-28T16:22:20Z</time>
      </trkpt>
      <trkpt lat="36.428140" lon="-118.913610">
        <ele>243.926</ele>
        <time>2018-12-28T16:22:40Z</time>
      </trkpt>
      <trkpt lat="36.427810" lon="-118.913930">
        <ele>241.649</ele>
        <time>2018-12-28T16:23:00Z</time>
      </trkpt>
      <trkpt lat="36.427480" lon="-118.914250">
        <ele>237.990</ele>
        <time>2018-12-28T16:23:20Z</time>
      </trkpt>
      <trkpt lat="36.427270" lon="-118.914450">
        <ele>235.953</ele>
        <time>2018-12-28T16:23:40Z</time>
      </trkpt>
      <trkpt lat="36.427200" lon="-118.914510">
        <ele>235.659</ele>
        <time>2018-12-28T16:24:00Z</time>
      </trkpt>
      <trkpt lat="36.427040" lon="-118.914660">
        <ele>235.103</ele>
        <time>2018-12-28T16:24:20Z</time>
      </trkpt>
      <trkpt lat="36.426860" lon="-118.914810">
        <ele>234.823</ele>
        <time>2018-12-28T16:24:40Z</time>
      </trkpt>
      <trkpt lat="36.426760" lon="-118.914880">
        <ele>234.808</ele>
        <time>2018-12-28T16:25:00Z</time>
      </trkpt>
      <trkpt lat="36.426730" lon="-118.914910">
        <ele>234.818</ele>
        <time>2018-12-28T16:25:20Z</time>
      </trkpt>
      <trkpt lat="36.426600" lon="-118.914990">
        <ele>235.116</ele>
        <time>2018-12-28T16:25:40Z</time>
      </trkpt>
      <trkpt lat="36.426540" lon="-118.915030">
        <ele>235.251</ele>
        <time>2018-12-28T16:26:00Z</time>
      </trkpt>
      <trkpt lat="36.426450" lon="-118.915080">
        <ele>235.271</ele>
        <time>2018-12-28T16:26:20Z</time>
      </trkpt>
      <trkpt lat="36.426340" lon="-118.915130">
        <ele>235.485</ele>
        <time>2018-12-28T16:26:40Z</time>
      </trkpt>
      <trkpt lat="36.426240" lon="-118.915180">
        <ele>235.418</ele>
        <time>2018-12-28T16:27:00Z</time>
      </trkpt>
      <trkpt lat="36.426090" lon="-118.915240">
        <ele>235.149</ele>
        <time>2018-12-28T16:27:20Z</time>
      </trkpt>
      <trkpt lat="36.425970" lon="-118.915280">
        <ele>234.942</ele>
        <time>2018-12-28T16:27:40Z</time>
      </trkpt>
      <trkpt lat="36.425880" lon="-118.915310">
        <ele>234.986</ele>
        <time>2018-12-28T16:28:00Z</time>
      </trkpt>
      <trkpt lat="36.425800" lon="-118.915330">
        <ele>234.860</ele>
        <time>2018-12-28T16:28:20Z</time>
      </trkpt>
      <trkpt lat="36.425760" lon="-118.915340">
        <ele>234.826</ele>
        <time>2018-12-28T16:28:40Z</time>
      </trkpt>
      <trkpt lat="36.425540" lon="-118.915380">
        <ele>234.508</ele>
        <time>2018-12-28T16:29:00Z</time>
      </trkpt>
      <trkpt lat="36.425180" lon="-118.915430">
        <ele>234.021</ele>
        <time>2018-12-28T16:29:20Z</time>
      </trkpt>
      <trkpt lat="36.424400" lon="-118.915540">
        <ele>233.569</ele>
        <time>2018-12-28T16:29:40Z</time>
      </trkpt>
      <trkpt lat="36.424020" lon="-118.915590">
        <ele>234.174</ele>
        <time>2018-12-28T16:30:00Z</time>
      </trkpt>
      <trkpt lat="36.423820" lon="-118.915610">
        <ele>234.254</ele>
        <time>2018-12-28T16:30:20Z</time>
      </trkpt>
      <trkpt lat="36.423620" lon="-118.915640">
        <ele>234.678</ele>
        <time>2018-12-28T16:30:40Z</time>
      </trkpt>
      <trkpt lat="36.423290" lon="-118.915690">
        <ele>236.451</ele>
        <time>2018-12-28T16:31:00Z</time>
      </trkpt>
      <trkpt lat="36.423240" lon="-118.915700">
        <ele>236.742</ele>
        <time>2018-12-28T16:31:20Z</time>
      </trkpt>
      <trkpt lat="36.423100" lon="-118.915730">
        <ele>237.955</ele>
        <time>2018-12-28T16:31:40Z</time>
      </trkpt>
      <trkpt lat="36.423050" lon="-118.915740">
        <ele>238.352</ele>
        <time>2018-12-28T16:32:00Z</time>
      </trkpt>
      <trkpt lat="36.422980" lon="-118.915760">
        <ele>238.953</ele>
        <time>2018-12-28T16:32:20Z</time>
      </trkpt>
      <trkpt lat="36.422910" lon="-118.915790">
        <ele>239.308</ele>
        <time>2018-12-28T16:32:40Z</time>
      </trkpt>
      <trkpt lat="36.422800" lon="-118.915830">
        <ele>239.508</ele>
        <time>2018-12-28T16:33:00Z</time>
      </trkpt>
      <trkpt lat="36.422730" lon="-118.915870">
        <ele>239.418</ele>
        <time>2018-12-28T16:33:20Z</time>
      </trkpt>
      <trkpt lat="36.422630" lon="-118.915920">
        <ele>239.416</ele>
        <time>2018-12-28T16:33:40Z</time>
      </trkpt>
      <trkpt lat="36.422530" lon="-118.915980">
        <ele>239.161</ele>
        <time>2018-12-28T16:34:00Z</time>
      </trkpt>
      <trkpt lat="36.422430" lon="-118.916040">
        <ele>238.951</ele>
        <time>2018-12-28T16:34:20Z</time>
      </trkpt>
      <trkpt lat="36.422330" lon="-118.916120">
        <ele>238.315</ele>
        <time>2018-12-28T16:34:40Z</time>
      </trkpt>
      <trkpt lat="36.422250" lon="-118.916190">
        <ele>237.868</ele>
        <time>2018-12-28T16:35:00Z</time>
      </trkpt>
      <trkpt lat="36.422160" lon="-118.916270">
        <ele>237.429</ele>
        <time>2018-12-28T16:35:20Z</time>
      </trkpt>
      <trkpt lat="36.422070" lon="-118.916360">
        <ele>237.162</ele>
        <time>2018-12-28T16:35:40Z</time>
      </trkpt>
      <trkpt lat="36.421990" lon="-118.916440">
        <ele>237.056</ele>
        <time>2018-12-28T16:36:00Z</time>
      </trkpt>
      <trkpt lat="36.421900" lon="-118.916560">
        <ele>236.759</ele>
        <time>2018-12-28T16:36:20Z</time>
      </trkpt>
      <trkpt lat="36.421850" lon="-118.916620">
        <ele>236.614</ele>
        <time>2018-12-28T16:36:40Z</time>
      </trkpt>
      <trkpt lat="36.421780" lon="-118.916720">
        <ele>236.408</ele>
        <time>2018-12-28T16:37:00Z</time>
      </trkpt>
      <trkpt lat="36.421710" lon="-118.916830">
        <ele>236.218</ele>
        <time>2018-12-28T16:37:20Z</time>
      </trkpt>
      <trkpt lat="36.421570" lon="-118.917090">
        <ele>236.236</ele>
        <time>2018-12-28T16:37:40Z</time>
      </trkpt>
      <trkpt lat="36.421510" lon="-118.917230">
        <ele>236.261</ele>
        <time>2018-12-28T16:38:00Z</time>
      </trkpt>
      <trkpt lat="36.421460" lon="-118.917370">
        <ele>236.011</ele>
        <time>2018-12-28T16:38:20Z</time>
      </trkpt>
      <trkpt lat="36.421390" lon="-118.917560">
        <ele>235.955</ele>
        <time>2018-12-28T16:38:40Z</time>
      </trkpt>
      <trkpt lat="36.421270" lon="-118.917890">
        <ele>235.358</ele>
        <time>2018-12-28T16:39:00Z</time>
      </trkpt>
      <trkpt lat="36.421010" lon="-118.918640">
        <ele>234.529</ele>
        <time>2018-12-28T16:39:20Z</time>
      </trkpt>
      <trkpt lat="36.420890" lon="-118.918980">
        <ele>234.832</ele>
        <time>2018-12-28T16:39:40Z</time>
      </trkpt>
      <trkpt lat="36.420690" lon="-118.919570">
        <ele>235.493</ele>
        <time>2018-12-28T16:40:00Z</time>
      </trkpt>
      <trkpt lat="36.420590" lon="-118.919870">
        <ele>236.365</ele>
        <time>2018-12-28T16:40:20Z</time>
      </trkpt>
      <trkpt lat="36.420490" lon="-118.920140">
        <ele>236.821</ele>
        <time>2018-12-28T16:40:40Z</time>
      </trkpt>
      <trkpt lat="36.420380" lon="-118.920360">
        <ele>237.208</ele>
        <time>2018-12-28T16:41:00Z</time>
      </trkpt>
      <trkpt lat="36.420300" lon="-118.920500">
        <ele>237.622</ele>
        <time>2018-12-28T16:41:20Z</time>
      </trkpt>
      <trkpt lat="36.420230" lon="-118.920600">
        <ele>237.980</ele>
        <time>2018-12-28T16:41:40Z</time>
      </trkpt>
      <trkpt lat="36.420130" lon="-118.920730">
        <ele>238.595</ele>
        <time>2018-12-28T16:42:00Z</time>
      </trkpt>
      <trkpt lat="36.420050" lon="-118.920830">
        <ele>238.825</ele>
        <time>2018-12-28T16:42:20Z</time>
      </trkpt>
      <trkpt lat="36.420020" lon="-118.920870">
        <ele>238.949</ele>
        <time>2018-12-28T16:42:40Z</time>
      </trkpt>
      <trkpt lat="36.419980" lon="-118.920910">
        <ele>239.162</ele>
        <time>2018-12-28T16:43:00Z</time>
      </trkpt>
      <trkpt lat="36.419930" lon="-118.920960">
        <ele>239.313</ele>
        <time>2018-12-28T16:43:20Z</time>
      </trkpt>
      <trkpt lat="36.419860" lon="-118.921020">
        <ele>239.666</ele>
        <time>2018-12-28T16:43:40Z</time>
      </trkpt>
      <trkpt lat="36.419770" lon="-118.921110">
        <ele>239.979</ele>
        <time>2018-12-28T16:44:00Z</time>
      </trkpt>
      <trkpt lat="36.419600" lon="-118.921250">
        <ele>240.705</ele>
        <time>2018-12-28T16:44:20Z</time>
      </trkpt>
      <trkpt lat="36.419090" lon="-118.921640">
        <ele>242.625</ele>
        <time>2018-12-28T16:44:40Z</time>
      </trkpt>
      <trkpt lat="36.418320" lon="-118.922240">
        <ele>241.908</ele>
        <time>2018-12-28T16:45:00Z</time>
      </trkpt>
      <trkpt lat="36.417960" lon="-118.922530">
        <ele>240.330</ele>
        <time>2018-12-28T16:45:20Z</time>
      </trkpt>
      <trkpt lat="36.417590" lon="-118.922830">
        <ele>239.198</ele>
        <time>2018-12-28T16:45:40Z</time>
      </trkpt>
      <trkpt lat="36.417410" lon="-118.922980">
        <ele>238.673</ele>
        <time>2018-12-28T16:46:00Z</time>
      </trkpt>
      <trkpt lat="36.417200" lon="-118.923140">
        <ele>238.153</ele>
        <time>2018-12-28T16:46:20Z</time>
      </trkpt>
      <trkpt lat="36.416860" lon="-118.923420">
        <ele>236.637</ele>
        <time>2018-12-28T16:46:40Z</time>
      </trkpt>
      <trkpt lat="36.416430" lon="-118.923760">
        <ele>235.360</ele>
        <time>2018-12-28T16:47:00Z</time>
      </trkpt>
      <trkpt lat="36.416010" lon="-118.924090">
        <ele>233.721</ele>
        <time>2018-12-28T16:47:20Z</time>
      </trkpt>
      <trkpt lat="36.415770" lon="-118.924290">
        <ele>231.654</ele>
        <time>2018-12-28T16:47:40Z</time>
      </trkpt>
      <trkpt lat="36.415630" lon="-118.924400">
        <ele>230.866</ele>
        <time>2018-12-28T16:48:00Z</time>
      </trkpt>
      <trkpt lat="36.415130" lon="-118.924800">
        <ele>229.529</ele>
        <time>2018-12-28T16:48:20Z</time>
      </trkpt>
      <trkpt lat="36.414650" lon="-118.925180">
        <ele>226.821</ele>
        <time>2018-12-28T16:48:40Z</time>
      </trkpt>
      <trkpt lat="36.414150" lon="-118.925590">
        <ele>223.108</ele>
        <time>2018-12-28T16:49:00Z</time>
      </trkpt>
      <trkpt lat="36.414050" lon="-118.925670">
        <ele>223.099</ele>
        <time>2018-12-28T16:49:20Z</time>
      </trkpt>
      <trkpt lat="36.413950" lon="-118.925760">
        <ele>223.257</ele>
        <time>2018-12-28T16:49:40Z</time>
      </trkpt>
      <trkpt lat="36.413840" lon="-118.925860">
        <ele>223.552</ele>
        <time>2018-12-28T16:50:00Z</time>
      </trkpt>
      <trkpt lat="36.413670" lon="-118.926020">
        <ele>224.462</ele>
        <time>2018-12-28T16:50:20Z</time>
      </trkpt>
      <trkpt lat="36.413390" lon="-118.926330">
        <ele>226.046</ele>
        <time>2018-12-28T16:50:40Z</time>
      </trkpt>
      <trkpt lat="36.413190" lon="-118.926580">
        <ele>226.759</ele>
        <time>2018-12-28T16:51:00Z</time>
      </trkpt>
      <trkpt lat="36.412990" lon="-118.926840">
        <ele>227.620</ele>
        <time>2018-12-28T16:51:20Z</time>
      </trkpt>
      <trkpt lat="36.412940" lon="-118.926920">
        <ele>228.423</ele>
        <time>2018-12-28T16:51:40Z</time>
      </trkpt>
      <trkpt lat="36.412850" lon="-118.927050">
        <ele>229.658</ele>
        <time>2018-12-28T16:52:00Z</time>
      </trkpt>
      <trkpt lat="36.412770" lon="-118.927170">
        <ele>231.352</ele>
        <time>2018-12-28T16:52:20Z</time>
      </trkpt>
      <trkpt lat="36.412710" lon="-118.927280">
        <ele>232.117</ele>
        <time>2018-12-28T16:52:40Z</time>
      </trkpt>
      <trkpt lat="36.412540" lon="-118.927590">
        <ele>234.308</ele>
        <time>2018-12-28T16:53:00Z</time>
      </trkpt>
      <trkpt lat="36.412390" lon="-118.927890">
        <ele>238.288</ele>
        <time>2018-12-28T16:53:20Z</time>
      </trkpt>
      <trkpt lat="36.412260" lon="-118.928180">
        <ele>239.976</ele>
        <time>2018-12-28T16:53:40Z</time>
      </trkpt>
      <trkpt lat="36.412140" lon="-118.928480">
        <ele>241.091</ele>
        <time>2018-12-28T16:54:00Z</time>
      </trkpt>
      <trkpt lat="36.412090" lon="-118.928630">
        <ele>241.231</ele>
        <time>2018-12-28T16:54:20Z</time>
      </trkpt>
      <trkpt lat="36.412030" lon="-118.928780">
        <ele>241.395</ele>
        <time>2018-12-28T16:54:40Z</time>
      </trkpt>
      <trkpt lat="36.411970" lon="-118.928980">
        <ele>241.358</ele>
        <time>2018-12-28T16:55:00Z</time>
      </trkpt>
      <trkpt lat="36.411920" lon="-118.929200">
        <ele>241.249</ele>
        <time>2018-12-28T16:55:20Z</time>
      </trkpt>
      <trkpt lat="36.411850" lon="-118.929480">
        <ele>240.732</ele>
        <time>2018-12-28T16:55:40Z</time>
      </trkpt>
      <trkpt lat="36.411790" lon="-118.929790">
        <ele>239.498</ele>
        <time>2018-12-28T16:56:00Z</time>
      </trkpt>
      <trkpt lat="36.411750" lon="-118.930040">
        <ele>238.315</ele>
        <time>2018-12-28T16:56:20Z</time>
      </trkpt>
      <trkpt lat="36.411700" lon="-118.930380">
        <ele>238.426</ele>
        <time>2018-12-28T16:56:40Z</time>
      </trkpt>
      <trkpt lat="36.411680" lon="-118.930620">
        <ele>239.008</ele>
        <time>2018-12-28T16:57:00Z</time>
      </trkpt>
      <trkpt lat="36.411660" lon="-118.930970">
        <ele>239.442</ele>
        <time>2018-12-28T16:57:20Z</time>
      </trkpt>
      <trkpt lat="36.411650" lon="-118.931270">
        <ele>239.470</ele>
        <time>2018-12-28T16:57:40Z</time>
      </trkpt>
      <trkpt lat="36.411660" lon="-118.931450">
        <ele>239.185</ele>
        <time>2018-12-28T16:58:00Z</time>
      </trkpt>
      <trkpt lat="36.411670" lon="-118.931680">
        <ele>238.965</ele>
        <time>2018-12-28T16:58:20Z</time>
      </trkpt>
      <trkpt lat="36.411690" lon="-118.931990">
        <ele>238.339</ele>
        <time>2018-12-28T16:58:40Z</time>
      </trkpt>
      <trkpt lat="36.411720" lon="-118.932520">
        <ele>237.392</ele>
        <time>2018-12-28T16:59:00Z</time>
      </trkpt>
      <trkpt lat="36.411750" lon="-118.932950">
        <ele>236.673</ele>
        <time>2018-12-28T16:59:20Z</time>
      </trkpt>
      <trkpt lat="36.411770" lon="-118.933280">
        <ele>235.846</ele>
        <time>2018-12-28T16:59:40Z</time>
      </trkpt>
      <trkpt lat="36.411770" lon="-118.933420">
        <ele>235.754</ele>
        <time>2018-12-28T17:00:00Z</time>
      </trkpt>
      <trkpt lat="36.411770" lon="-118.933520">
        <ele>235.656</ele>
        <time>2018-12-28T17:00:20Z</time>
      </trkpt>
      <trkpt lat="36.411770" lon="-118.933710">
        <ele>235.311</ele>
        <time>2018-12-28T17:00:40Z</time>
      </trkpt>
      <trkpt lat="36.411760" lon="-118.934060">
        <ele>234.708</ele>
        <time>2018-12-28T17:01:00Z</time>
      </trkpt>
      <trkpt lat="36.411750" lon="-118.934260">
        <ele>234.588</ele>
        <time>2018-12-28T17:01:20Z</time>
      </trkpt>
      <trkpt lat="36.411730" lon="-118.934430">
        <ele>234.236</ele>
        <time>2018-12-28T17:01:40Z</time>
      </trkpt>
      <trkpt lat="36.411710" lon="-118.934570">
        <ele>234.071</ele>
        <time>2018-12-28T17:02:00Z</time>
      </trkpt>
      <trkpt lat="36.411670" lon="-118.934870">
        <ele>232.681</ele>
        <time>2018-12-28T17:02:20Z</time>
      </trkpt>
      <trkpt lat="36.411620" lon="-118.935170">
        <ele>231.015</ele>
        <time>2018-12-28T17:02:40Z</time>
      </trkpt>
      <trkpt lat="36.411570" lon="-118.935390">
        <ele>231.528</ele>
        <time>2018-12-28T17:03:00Z</time>
      </trkpt>
      <trkpt lat="36.411540" lon="-118.935560">
        <ele>231.559</ele>
        <time>2018-12-28T17:03:20Z</time>
      </trkpt>
      <trkpt lat="36.411480" lon="-118.935760">
        <ele>231.852</ele>
        <time>2018-12-28T17:03:40Z</time>
      </trkpt>
      <trkpt lat="36.411320" lon="-118.936360">
        <ele>231.681</ele>
        <time>2018-12-28T17:04:00Z</time>
      </trkpt>
      <trkpt lat="36.411070" lon="-118.937280">
        <ele>229.861</ele>
        <time>2018-12-28T17:04:20Z</time>
      </trkpt>
      <trkpt lat="36.410600" lon="-118.938960">
        <ele>223.917</ele>
        <time>2018-12-28T17:04:40Z</time>
      </trkpt>
      <trkpt lat="36.410530" lon="-118.939230">
        <ele>224.108</ele>
        <time>2018-12-28T17:05:00Z</time>
      </trkpt>
      <trkpt lat="36.410480" lon="-118.939420">
        <ele>224.351</ele>
        <time>2018-12-28T17:05:20Z</time>
      </trkpt>
      <trkpt lat="36.410450" lon="-118.939580">
        <ele>224.299</ele>
        <time>2018-12-28T17:05:40Z</time>
      </trkpt>
      <trkpt lat="36.410400" lon="-118.939830">
        <ele>224.244</ele>
        <time>2018-12-28T17:06:00Z</time>
      </trkpt>
      <trkpt lat="36.410370" lon="-118.939970">
        <ele>224.334</ele>
        <time>2018-12-28T17:06:20Z</time>
      </trkpt>
      <trkpt lat="36.410350" lon="-118.940170">
        <ele>224.088</ele>
        <time>2018-12-28T17:06:40Z</time>
      </trkpt>
      <trkpt lat="36.410330" lon="-118.940330">
        <ele>224.051</ele>
        <time>2018-12-28T17:07:00Z</time>
      </trkpt>
      <trkpt lat="36.410310" lon="-118.940490">
        <ele>224.132</ele>
        <time>2018-12-28T17:07:20Z</time>
      </trkpt>
      <trkpt lat="36.410290" lon="-118.940720">
        <ele>224.295</ele>
        <time>2018-12-28T17:07:40Z</time>
      </trkpt>
      <trkpt lat="36.410160" lon="-118.942850">
        <ele>225.613</ele>
        <time>2018-12-28T17:08:00Z</time>
      </trkpt>
      <trkpt lat="36.410130" lon="-118.943430">
        <ele>227.343</ele>
        <time>2018-12-28T17:08:20Z</time>
      </trkpt>
      <trkpt lat="36.410090" lon="-118.944350">
        <ele>231.407</ele>
        <time>2018-12-28T17:08:40Z</time>
      </trkpt>
      <trkpt lat="36.410070" lon="-118.944530">
        <ele>234.808</ele>
        <time>2018-12-28T17:09:00Z</time>
      </trkpt>
      <trkpt lat="36.410050" lon="-118.944620">
        <ele>236.154</ele>
        <time>2018-12-28T17:09:20Z</time>
      </trkpt>
      <trkpt lat="36.410030" lon="-118.944740">
        <ele>236.832</ele>
        <time>2018-12-28T17:09:40Z</time>
      </trkpt>
      <trkpt lat="36.409990" lon="-118.944920">
        <ele>238.117</ele>
        <time>2018-12-28T17:10:00Z</time>
      </trkpt>
      <trkpt lat="36.409970" lon="-118.945000">
        <ele>238.617</ele>
        <time>2018-12-28T17:10:20Z</time>
      </trkpt>
      <trkpt lat="36.409930" lon="-118.945120">
        <ele>239.681</ele>
        <time>2018-12-28T17:10:40Z</time>
      </trkpt>
      <trkpt lat="36.409900" lon="-118.945200">
        <ele>240.294</ele>
        <time>2018-12-28T17:11:00Z</time>
      </trkpt>
      <trkpt lat="36.409850" lon="-118.945350">
        <ele>241.195</ele>
        <time>2018-12-28T17:11:20Z</time>
      </trkpt>
      <trkpt lat="36.409780" lon="-118.945500">
        <ele>242.188</ele>
        <time>2018-12-28T17:11:40Z</time>
      </trkpt>
      <trkpt lat="36.409740" lon="-118.945580">
        <ele>242.195</ele>
        <time>2018-12-28T17:12:00Z</time>
      </trkpt>
      <trkpt lat="36.409690" lon="-118.945680">
        <ele>241.549</ele>
        <time>2018-12-28T17:12:20Z</time>
      </trkpt>
      <trkpt lat="36.409570" lon="-118.945870">
        <ele>241.423</ele>
        <time>2018-12-28T17:12:40Z</time>
      </trkpt>
      <trkpt lat="36.409520" lon="-118.945940">
        <ele>241.408</ele>
        <time>2018-12-28T17:13:00Z</time>
      </trkpt>
      <trkpt lat="36.409470" lon="-118.946010">
        <ele>240.982</ele>
        <time>2018-12-28T17:13:20Z</time>
      </trkpt>
      <trkpt lat="36.409410" lon="-118.946080">
        <ele>240.520</ele>
        <time>2018-12-28T17:13:40Z</time>
      </trkpt>
      <trkpt lat="36.409340" lon="-118.946160">
        <ele>239.975</ele>
        <time>2018-12-28T17:14:00Z</time>
      </trkpt>
      <trkpt lat="36.409280" lon="-118.946220">
        <ele>239.245</ele>
        <time>2018-12-28T17:14:20Z</time>
      </trkpt>
      <trkpt lat="36.409180" lon="-118.946320">
        <ele>237.969</ele>
        <time>2018-12-28T17:14:40Z</time>
      </trkpt>
      <trkpt lat="36.409080" lon="-118.946400">
        <ele>237.022</ele>
        <time>2018-12-28T17:15:00Z</time>
      </trkpt>
      <trkpt lat="36.409000" lon="-118.946460">
        <ele>236.543</ele>
        <time>2018-12-28T17:15:20Z</time>
      </trkpt>
      <trkpt lat="36.408510" lon="-118.946790">
        <ele>238.186</ele>
        <time>2018-12-28T17:15:40Z</time>
      </trkpt>
      <trkpt lat="36.408130" lon="-118.947020">
        <ele>238.293</ele>
        <time>2018-12-28T17:16:00Z</time>
      </trkpt>
      <trkpt lat="36.407730" lon="-118.947260">
        <ele>237.265</ele>
        <time>2018-12-28T17:16:20Z</time>
      </trkpt>
      <trkpt lat="36.407540" lon="-118.947390">
        <ele>236.521</ele>
        <time>2018-12-28T17:16:40Z</time>
      </trkpt>
      <trkpt lat="36.407450" lon="-118.947460">
        <ele>236.408</ele>
        <time>2018-12-28T17:17:00Z</time>
      </trkpt>
      <trkpt lat="36.407340" lon="-118.947560">
        <ele>236.212</ele>
        <time>2018-12-28T17:17:20Z</time>
      </trkpt>
      <trkpt lat="36.407250" lon="-118.947640">
        <ele>236.110</ele>
        <time>2018-12-28T17:17:40Z</time>
      </trkpt>
      <trkpt lat="36.407070" lon="-118.947850">
        <ele>236.035</ele>
        <time>2018-12-28T17:18:00Z</time>
      </trkpt>
      <trkpt lat="36.406930" lon="-118.948040">
        <ele>236.145</ele>
        <time>2018-12-28T17:18:20Z</time>
      </trkpt>
      <trkpt lat="36.406850" lon="-118.948180">
        <ele>236.169</ele>
        <time>2018-12-28T17:18:40Z</time>
      </trkpt>
      <trkpt lat="36.406780" lon="-118.948300">
        <ele>236.582</ele>
        <time>2018-12-28T17:19:00Z</time>
      </trkpt>
      <trkpt lat="36.406740" lon="-118.948390">
        <ele>236.993</ele>
        <time>2018-12-28T17:19:20Z</time>
      </trkpt>
      <trkpt lat="36.406660" lon="-118.948560">
        <ele>238.056</ele>
        <time>2018-12-28T17:19:40Z</time>
      </trkpt>
      <trkpt lat="36.406600" lon="-118.948740">
        <ele>239.058</ele>
        <time>2018-12-28T17:20:00Z</time>
      </trkpt>
      <trkpt lat="36.406550" lon="-118.948880">
        <ele>239.852</ele>
        <time>2018-12-28T17:20:20Z</time>
      </trkpt>
      <trkpt lat="36.406390" lon="-118.949330">
        <ele>242.217</ele>
        <time>2018-12-28T17:20:40Z</time>
      </trkpt>
      <trkpt lat="36.406270" lon="-118.949680">
        <ele>241.208</ele>
        <time>2018-12-28T17:21:00Z</time>
      </trkpt>
      <trkpt lat="36.406210" lon="-118.949850">
        <ele>242.948</ele>
        <time>2018-12-28T17:21:20Z</time>
      </trkpt>
      <trkpt lat="36.406110" lon="-118.950130">
        <ele>241.026</ele>
        <time>2018-12-28T17:21:40Z</time>
      </trkpt>
      <trkpt lat="36.406060" lon="-118.950250">
        <ele>240.631</ele>
        <time>2018-12-28T17:22:00Z</time>
      </trkpt>
      <trkpt lat="36.405970" lon="-118.950460">
        <ele>240.391</ele>
        <time>2018-12-28T17:22:20Z</time>
      </trkpt>
      <trkpt lat="36.405840" lon="-118.950730">
        <ele>240.025</ele>
        <time>2018-12-28T17:22:40Z</time>
      </trkpt>
      <trkpt lat="36.405760" lon="-118.950870">
        <ele>240.198</ele>
        <time>2018-12-28T17:23:00Z</time>
      </trkpt>
      <trkpt lat="36.405640" lon="-118.951080">
        <ele>239.829</ele>
        <time>2018-12-28T17:23:20Z</time>
      </trkpt>
      <trkpt lat="36.405590" lon="-118.951160">
        <ele>239.642</ele>
        <time>2018-12-28T17:23:40Z</time>
      </trkpt>
      <trkpt lat="36.405510" lon="-118.951270">
        <ele>239.268</ele>
        <time>2018-12-28T17:24:00Z</time>
      </trkpt>
      <trkpt lat="36.405340" lon="-118.951490">
        <ele>237.542</ele>
        <time>2018-12-28T17:24:20Z</time>
      </trkpt>
      <trkpt lat="36.405250" lon="-118.951600">
        <ele>236.826</ele>
        <time>2018-12-28T17:24:40Z</time>
      </trkpt>
      <trkpt lat="36.405080" lon="-118.951790">
        <ele>235.208</ele>
        <time>2018-12-28T17:25:00Z</time>
      </trkpt>
      <trkpt lat="36.404990" lon="-118.951890">
        <ele>234.389</ele>
        <time>2018-12-28T17:25:20Z</time>
      </trkpt>
      <trkpt lat="36.404810" lon="-118.952060">
        <ele>233.917</ele>
        <time>2018-12-28T17:25:40Z</time>
      </trkpt>
      <trkpt lat="36.404630" lon="-118.952200">
        <ele>232.682</ele>
        <time>2018-12-28T17:26:00Z</time>
      </trkpt>
      <trkpt lat="36.404540" lon="-118.952270">
        <ele>232.932</ele>
        <time>2018-12-28T17:26:20Z</time>
      </trkpt>
      <trkpt lat="36.404470" lon="-118.952320">
        <ele>232.866</ele>
        <time>2018-12-28T17:26:40Z</time>
      </trkpt>
      <trkpt lat="36.404360" lon="-118.952390">
        <ele>231.869</ele>
        <time>2018-12-28T17:27:00Z</time>
      </trkpt>
      <trkpt lat="36.404210" lon="-118.952470">
        <ele>229.560</ele>
        <time>2018-12-28T17:27:20Z</time>
      </trkpt>
      <trkpt lat="36.403910" lon="-118.952630">
        <ele>227.893</ele>
        <time>2018-12-28T17:27:40Z</time>
      </trkpt>
      <trkpt lat="36.403730" lon="-118.952700">
        <ele>228.275</ele>
        <time>2018-12-28T17:28:00Z</time>
      </trkpt>
      <trkpt lat="36.403500" lon="-118.952780">
        <ele>228.128</ele>
        <time>2018-12-28T17:28:20Z</time>
      </trkpt>
      <trkpt lat="36.403330" lon="-118.952830">
        <ele>228.120</ele>
        <time>2018-12-28T17:28:40Z</time>
      </trkpt>
      <trkpt lat="36.403220" lon="-118.952850">
        <ele>228.208</ele>
        <time>2018-12-28T17:29:00Z</time>
      </trkpt>
      <trkpt lat="36.403020" lon="-118.952880">
        <ele>228.190</ele>
        <time>2018-12-28T17:29:20Z</time>
      </trkpt>
      <trkpt lat="36.402860" lon="-118.952900">
        <ele>227.968</ele>
        <time>2018-12-28T17:29:40Z</time>
      </trkpt>
      <trkpt lat="36.402720" lon="-118.952910">
        <ele>227.823</ele>
        <time>2018-12-28T17:30:00Z</time>
      </trkpt>
      <trkpt lat="36.402650" lon="-118.952910">
        <ele>227.843</ele>
        <time>2018-12-28T17:30:20Z</time>
      </trkpt>
      <trkpt lat="36.402540" lon="-118.952910">
        <ele>227.737</ele>
        <time>2018-12-28T17:30:40Z</time>
      </trkpt>
      <trkpt lat="36.402460" lon="-118.952910">
        <ele>227.640</ele>
        <time>2018-12-28T17:31:00Z</time>
      </trkpt>
      <trkpt lat="36.402340" lon="-118.952900">
        <ele>227.691</ele>
        <time>2018-12-28T17:31:20Z</time>
      </trkpt>
      <trkpt lat="36.402210" lon="-118.952890">
        <ele>227.774</ele>
        <time>2018-12-28T17:31:40Z</time>
      </trkpt>
      <trkpt lat="36.402050" lon="-118.952860">
        <ele>227.922</ele>
        <time>2018-12-28T17:32:00Z</time>
      </trkpt>
      <trkpt lat="36.401110" lon="-118.952700">
        <ele>227.062</ele>
        <time>2018-12-28T17:32:20Z</time>
      </trkpt>
      <trkpt lat="36.400970" lon="-118.952670">
        <ele>227.208</ele>
        <time>2018-12-28T17:32:40Z</time>
      </trkpt>
      <trkpt lat="36.400820" lon="-118.952640">
        <ele>227.308</ele>
        <time>2018-12-28T17:33:00Z</time>
      </trkpt>
      <trkpt lat="36.400770" lon="-118.952630">
        <ele>227.315</ele>
        <time>2018-12-28T17:33:20Z</time>
      </trkpt>
      <trkpt lat="36.400660" lon="-118.952600">
        <ele>227.663</ele>
        <time>2018-12-28T17:33:40Z</time>
      </trkpt>
      <trkpt lat="36.400560" lon="-118.952570">
        <ele>227.748</ele>
        <time>2018-12-28T17:34:00Z</time>
      </trkpt>
      <trkpt lat="36.400500" lon="-118.952550">
        <ele>227.828</ele>
        <time>2018-12-28T17:34:20Z</time>
      </trkpt>
      <trkpt lat="36.400330" lon="-118.952490">
        <ele>228.162</ele>
        <time>2018-12-28T17:34:40Z</time>
      </trkpt>
      <trkpt lat="36.400160" lon="-118.952410">
        <ele>228.755</ele>
        <time>2018-12-28T17:35:00Z</time>
      </trkpt>
      <trkpt lat="36.400070" lon="-118.952370">
        <ele>228.996</ele>
        <time>2018-12-28T17:35:20Z</time>
      </trkpt>
      <trkpt lat="36.399990" lon="-118.952320">
        <ele>229.269</ele>
        <time>2018-12-28T17:35:40Z</time>
      </trkpt>
      <trkpt lat="36.399830" lon="-118.952210">
        <ele>229.791</ele>
        <time>2018-12-28T17:36:00Z</time>
      </trkpt>
      <trkpt lat="36.399640" lon="-118.952080">
        <ele>229.981</ele>
        <time>2018-12-28T17:36:20Z</time>
      </trkpt>
      <trkpt lat="36.399370" lon="-118.951860">
        <ele>229.919</ele>
        <time>2018-12-28T17:36:40Z</time>
      </trkpt>
      <trkpt lat="36.398760" lon="-118.951300">
        <ele>230.108</ele>
        <time>2018-12-28T17:37:00Z</time>
      </trkpt>
      <trkpt lat="36.398280" lon="-118.950860">
        <ele>227.672</ele>
        <time>2018-12-28T17:37:20Z</time>
      </trkpt>
      <trkpt lat="36.397920" lon="-118.950540">
        <ele>227.050</ele>
        <time>2018-12-28T17:37:40Z</time>
      </trkpt>
      <trkpt lat="36.397600" lon="-118.950240">
        <ele>227.035</ele>
        <time>2018-12-28T17:38:00Z</time>
      </trkpt>
      <trkpt lat="36.397540" lon="-118.950190">
        <ele>226.925</ele>
        <time>2018-12-28T17:38:20Z</time>
      </trkpt>
      <trkpt lat="36.397380" lon="-118.950040">
        <ele>226.959</ele>
        <time>2018-12-28T17:38:40Z</time>
      </trkpt>
      <trkpt lat="36.397190" lon="-118.949900">
        <ele>228.322</ele>
        <time>2018-12-28T17:39:00Z</time>
      </trkpt>
      <trkpt lat="36.397160" lon="-118.949880">
        <ele>228.773</ele>
        <time>2018-12-28T17:39:20Z</time>
      </trkpt>
      <trkpt lat="36.396780" lon="-118.949540">
        <ele>233.216</ele>
        <time>2018-12-28T17:39:40Z</time>
      </trkpt>
      <trkpt lat="36.396650" lon="-118.949420">
        <ele>232.964</ele>
        <time>2018-12-28T17:40:00Z</time>
      </trkpt>
      <trkpt lat="36.396410" lon="-118.949190">
        <ele>233.206</ele>
        <time>2018-12-28T17:40:20Z</time>
      </trkpt>
      <trkpt lat="36.396090" lon="-118.948890">
        <ele>233.916</ele>
        <time>2018-12-28T17:40:40Z</time>
      </trkpt>
      <trkpt lat="36.395880" lon="-118.948690">
        <ele>235.408</ele>
        <time>2018-12-28T17:41:00Z</time>
      </trkpt>
      <trkpt lat="36.395780" lon="-118.948600">
        <ele>237.689</ele>
        <time>2018-12-28T17:41:20Z</time>
      </trkpt>
      <trkpt lat="36.395570" lon="-118.948440">
        <ele>244.477</ele>
        <time>2018-12-28T17:41:40Z</time>
      </trkpt>
      <trkpt lat="36.395250" lon="-118.948170">
        <ele>248.852</ele>
        <time>2018-12-28T17:42:00Z</time>
      </trkpt>
      <trkpt lat="36.394800" lon="-118.947830">
        <ele>252.632</ele>
        <time>2018-12-28T17:42:20Z</time>
      </trkpt>
      <trkpt lat="36.394690" lon="-118.947750">
        <ele>253.396</ele>
        <time>2018-12-28T17:42:40Z</time>
      </trkpt>
      <trkpt lat="36.394460" lon="-118.947610">
        <ele>254.359</ele>
        <time>2018-12-28T17:43:00Z</time>
      </trkpt>
      <trkpt lat="36.394230" lon="-118.947480">
        <ele>254.110</ele>
        <time>2018-12-28T17:43:20Z</time>
      </trkpt>
      <trkpt lat="36.393980" lon="-118.947370">
        <ele>254.453</ele>
        <time>2018-12-28T17:43:40Z</time>
      </trkpt>
      <trkpt lat="36.393850" lon="-118.947310">
        <ele>255.065</ele>
        <time>2018-12-28T17:44:00Z</time>
      </trkpt>
      <trkpt lat="36.393700" lon="-118.947250">
        <ele>254.468</ele>
        <time>2018-12-28T17:44:20Z</time>
      </trkpt>
      <trkpt lat="36.393590" lon="-118.947210">
        <ele>254.114</ele>
        <time>2018-12-28T17:44:40Z</time>
      </trkpt>
      <trkpt lat="36.393350" lon="-118.947130">
        <ele>253.908</ele>
        <time>2018-12-28T17:45:00Z</time>
      </trkpt>
      <trkpt lat="36.392960" lon="-118.947000">
        <ele>247.869</ele>
        <time>2018-12-28T17:45:20Z</time>
      </trkpt>
      <trkpt lat="36.392820" lon="-118.946970">
        <ele>245.787</ele>
        <time>2018-12-28T17:45:40Z</time>
      </trkpt>
      <trkpt lat="36.392690" lon="-118.946950">
        <ele>244.672</ele>
        <time>2018-12-28T17:46:00Z</time>
      </trkpt>
      <trkpt lat="36.391900" lon="-118.946850">
        <ele>238.442</ele>
        <time>2018-12-28T17:46:20Z</time>
      </trkpt>
      <trkpt lat="36.391880" lon="-118.946850">
        <ele>238.166</ele>
        <time>2018-12-28T17:46:40Z</time>
      </trkpt>
      <trkpt lat="36.391520" lon="-118.946810">
        <ele>236.219</ele>
        <time>2018-12-28T17:47:00Z</time>
      </trkpt>
      <trkpt lat="36.391160" lon="-118.946760">
        <ele>235.560</ele>
        <time>2018-12-28T17:47:20Z</time>
      </trkpt>
      <trkpt lat="36.390680" lon="-118.946680">
        <ele>232.673</ele>
        <time>2018-12-28T17:47:40Z</time>
      </trkpt>
      <trkpt lat="36.390660" lon="-118.946680">
        <ele>232.248</ele>
        <time>2018-12-28T17:48:00Z</time>
      </trkpt>
      <trkpt lat="36.390630" lon="-118.946670">
        <ele>231.661</ele>
        <time>2018-12-28T17:48:20Z</time>
      </trkpt>
      <trkpt lat="36.390510" lon="-118.946610">
        <ele>229.817</ele>
        <time>2018-12-28T17:48:40Z</time>
      </trkpt>
      <trkpt lat="36.390500" lon="-118.946610">
        <ele>229.608</ele>
        <time>2018-12-28T17:49:00Z</time>
      </trkpt>
      <trkpt lat="36.389660" lon="-118.946460">
        <ele>222.387</ele>
        <time>2018-12-28T17:49:20Z</time>
      </trkpt>
      <trkpt lat="36.389200" lon="-118.946370">
        <ele>214.755</ele>
        <time>2018-12-28T17:49:40Z</time>
      </trkpt>
      <trkpt lat="36.389130" lon="-118.946370">
        <ele>213.880</ele>
        <time>2018-12-28T17:50:00Z</time>
      </trkpt>
      <trkpt lat="36.389060" lon="-118.946370">
        <ele>212.850</ele>
        <time>2018-12-28T17:50:20Z</time>
      </trkpt>
      <trkpt lat="36.388920" lon="-118.946380">
        <ele>212.484</ele>
        <time>2018-12-28T17:50:40Z</time>
      </trkpt>
      <trkpt lat="36.388840" lon="-118.946390">
        <ele>212.417</ele>
        <time>2018-12-28T17:51:00Z</time>
      </trkpt>
      <trkpt lat="36.388780" lon="-118.946400">
        <ele>212.458</ele>
        <time>2018-12-28T17:51:20Z</time>
      </trkpt>
      <trkpt lat="36.388690" lon="-118.946420">
        <ele>212.561</ele>
        <time>2018-12-28T17:51:40Z</time>
      </trkpt>
      <trkpt lat="36.388630" lon="-118.946440">
        <ele>212.725</ele>
        <time>2018-12-28T17:52:00Z</time>
      </trkpt>
      <trkpt lat="36.388470" lon="-118.946500">
        <ele>213.326</ele>
        <time>2018-12-28T17:52:20Z</time>
      </trkpt>
      <trkpt lat="36.388300" lon="-118.946590">
        <ele>216.308</ele>
        <time>2018-12-28T17:52:40Z</time>
      </trkpt>
      <trkpt lat="36.388210" lon="-118.946650">
        <ele>217.708</ele>
        <time>2018-12-28T17:53:00Z</time>
      </trkpt>
      <trkpt lat="36.388040" lon="-118.946770">
        <ele>220.115</ele>
        <time>2018-12-28T17:53:20Z</time>
      </trkpt>
      <trkpt lat="36.387890" lon="-118.946880">
        <ele>221.883</ele>
        <time>2018-12-28T17:53:40Z</time>
      </trkpt>
      <trkpt lat="36.387820" lon="-118.946940">
        <ele>223.378</ele>
        <time>2018-12-28T17:54:00Z</time>
      </trkpt>
      <trkpt lat="36.387680" lon="-118.947090">
        <ele>223.078</ele>
        <time>2018-12-28T17:54:20Z</time>
      </trkpt>
      <trkpt lat="36.387580" lon="-118.947210">
        <ele>223.632</ele>
        <time>2018-12-28T17:54:40Z</time>
      </trkpt>
      <trkpt lat="36.387440" lon="-118.947400">
        <ele>222.725</ele>
        <time>2018-12-28T17:55:00Z</time>
      </trkpt>
      <trkpt lat="36.387360" lon="-118.947500">
        <ele>222.076</ele>
        <time>2018-12-28T17:55:20Z</time>
      </trkpt>
      <trkpt lat="36.387290" lon="-118.947620">
        <ele>219.919</ele>
        <time>2018-12-28T17:55:40Z</time>
      </trkpt>
      <trkpt lat="36.387220" lon="-118.947740">
        <ele>219.489</ele>
        <time>2018-12-28T17:56:00Z</time>
      </trkpt>
      <trkpt lat="36.387180" lon="-118.947840">
        <ele>219.006</ele>
        <time>2018-12-28T17:56:20Z</time>
      </trkpt>
      <trkpt lat="36.387130" lon="-118.947960">
        <ele>218.826</ele>
        <time>2018-12-28T17:56:40Z</time>
      </trkpt>
      <trkpt lat="36.387080" lon="-118.948100">
        <ele>219.808</ele>
        <time>2018-12-28T17:57:00Z</time>
      </trkpt>
      <trkpt lat="36.387050" lon="-118.948180">
        <ele>220.871</ele>
        <time>2018-12-28T17:57:20Z</time>
      </trkpt>
      <trkpt lat="36.387020" lon="-118.948310">
        <ele>222.369</ele>
        <time>2018-12-28T17:57:40Z</time>
      </trkpt>
      <trkpt lat="36.386990" lon="-118.948400">
        <ele>223.864</ele>
        <time>2018-12-28T17:58:00Z</time>
      </trkpt>
      <trkpt lat="36.386970" lon="-118.948520">
        <ele>225.094</ele>
        <time>2018-12-28T17:58:20Z</time>
      </trkpt>
      <trkpt lat="36.386950" lon="-118.948630">
        <ele>225.348</ele>
        <time>2018-12-28T17:58:40Z</time>
      </trkpt>
      <trkpt lat="36.386930" lon="-118.948750">
        <ele>225.441</ele>
        <time>2018-12-28T17:59:00Z</time>
      </trkpt>
      <trkpt lat="36.386910" lon="-118.948900">
        <ele>224.732</ele>
        <time>2018-12-28T17:59:20Z</time>
      </trkpt>
      <trkpt lat="36.386910" lon="-118.948980">
        <ele>223.925</ele>
        <time>2018-12-28T17:59:40Z</time>
      </trkpt>
      <trkpt lat="36.386900" lon="-118.949050">
        <ele>223.534</ele>
        <time>2018-12-28T18:00:00Z</time>
      </trkpt>
      <trkpt lat="36.386900" lon="-118.949130">
        <ele>222.855</ele>
        <time>2018-12-28T18:00:20Z</time>
      </trkpt>
      <trkpt lat="36.386900" lon="-118.949220">
        <ele>222.010</ele>
        <time>2018-12-28T18:00:40Z</time>
      </trkpt>
      <trkpt lat="36.386900" lon="-118.949330">
        <ele>221.208</ele>
        <time>2018-12-28T18:01:00Z</time>
      </trkpt>
      <trkpt lat="36.386910" lon="-118.949480">
        <ele>220.846</ele>
        <time>2018-12-28T18:01:20Z</time>
      </trkpt>
      <trkpt lat="36.386920" lon="-118.949610">
        <ele>220.964</ele>
        <time>2018-12-28T18:01:40Z</time>
      </trkpt>
      <trkpt lat="36.386940" lon="-118.949900">
        <ele>224.159</ele>
        <time>2018-12-28T18:02:00Z</time>
      </trkpt>
      <trkpt lat="36.387010" lon="-118.950800">
        <ele>226.699</ele>
        <time>2018-12-28T18:02:20Z</time>
      </trkpt>
      <trkpt lat="36.387030" lon="-118.951030">
        <ele>227.013</ele>
        <time>2018-12-28T18:02:40Z</time>
      </trkpt>
      <trkpt lat="36.387070" lon="-118.951440">
        <ele>227.456</ele>
        <time>2018-12-28T18:03:00Z</time>
      </trkpt>
      <trkpt lat="36.387110" lon="-118.951860">
        <ele>230.327</ele>
        <time>2018-12-28T18:03:20Z</time>
      </trkpt>
      <trkpt lat="36.387140" lon="-118.952070">
        <ele>234.970</ele>
        <time>2018-12-28T18:03:40Z</time>
      </trkpt>
      <trkpt lat="36.387170" lon="-118.952220">
        <ele>237.668</ele>
        <time>2018-12-28T18:04:00Z</time>
      </trkpt>
      <trkpt lat="36.387220" lon="-118.952430">
        <ele>240.042</ele>
        <time>2018-12-28T18:04:20Z</time>
      </trkpt>
      <trkpt lat="36.387270" lon="-118.952560">
        <ele>240.426</ele>
        <time>2018-12-28T18:04:40Z</time>
      </trkpt>
      <trkpt lat="36.387290" lon="-118.952640">
        <ele>240.808</ele>
        <time>2018-12-28T18:05:00Z</time>
      </trkpt>
      <trkpt lat="36.387310" lon="-118.952690">
        <ele>240.979</ele>
        <time>2018-12-28T18:05:20Z</time>
      </trkpt>
      <trkpt lat="36.387370" lon="-118.952830">
        <ele>240.017</ele>
        <time>2018-12-28T18:05:40Z</time>
      </trkpt>
      <trkpt lat="36.387470" lon="-118.953070">
        <ele>238.722</ele>
        <time>2018-12-28T18:06:00Z</time>
      </trkpt>
      <trkpt lat="36.388150" lon="-118.954700">
        <ele>241.932</ele>
        <time>2018-12-28T18:06:20Z</time>
      </trkpt>
      <trkpt lat="36.388280" lon="-118.955020">
        <ele>239.356</ele>
        <time>2018-12-28T18:06:40Z</time>
      </trkpt>
      <trkpt lat="36.388420" lon="-118.955330">
        <ele>237.019</ele>
        <time>2018-12-28T18:07:00Z</time>
      </trkpt>
      <trkpt lat="36.389520" lon="-118.957960">
        <ele>232.340</ele>
        <time>2018-12-28T18:07:20Z</time>
      </trkpt>
      <trkpt lat="36.389520" lon="-118.957970">
        <ele>232.333</ele>
        <time>2018-12-28T18:07:40Z</time>
      </trkpt>
      <trkpt lat="36.389750" lon="-118.958530">
        <ele>227.677</ele>
        <time>2018-12-28T18:08:00Z</time>
      </trkpt>
      <trkpt lat="36.390020" lon="-118.959150">
        <ele>227.961</ele>
        <time>2018-12-28T18:08:20Z</time>
      </trkpt>
      <trkpt lat="36.390130" lon="-118.959400">
        <ele>228.627</ele>
        <time>2018-12-28T18:08:40Z</time>
      </trkpt>
      <trkpt lat="36.390170" lon="-118.959500">
        <ele>228.608</ele>
        <time>2018-12-28T18:09:00Z</time>
      </trkpt>
      <trkpt lat="36.390250" lon="-118.959680">
        <ele>228.050</ele>
        <time>2018-12-28T18:09:20Z</time>
      </trkpt>
      <trkpt lat="36.390340" lon="-118.959870">
        <ele>227.778</ele>
        <time>2018-12-28T18:09:40Z</time>
      </trkpt>
      <trkpt lat="36.390480" lon="-118.960140">
        <ele>228.083</ele>
        <time>2018-12-28T18:10:00Z</time>
      </trkpt>
      <trkpt lat="36.390560" lon="-118.960280">
        <ele>226.623</ele>
        <time>2018-12-28T18:10:20Z</time>
      </trkpt>
      <trkpt lat="36.390860" lon="-118.960780">
        <ele>225.227</ele>
        <time>2018-12-28T18:10:40Z</time>
      </trkpt>
      <trkpt lat="36.391180" lon="-118.961230">
        <ele>233.440</ele>
        <time>2018-12-28T18:11:00Z</time>
      </trkpt>
      <trkpt lat="36.391580" lon="-118.961800">
        <ele>237.431</ele>
        <time>2018-12-28T18:11:20Z</time>
      </trkpt>
      <trkpt lat="36.391660" lon="-118.961900">
        <ele>238.084</ele>
        <time>2018-12-28T18:11:40Z</time>
      </trkpt>
      <trkpt lat="36.391770" lon="-118.962060">
        <ele>238.989</ele>
        <time>2018-12-28T18:12:00Z</time>
      </trkpt>
      <trkpt lat="36.391800" lon="-118.962110">
        <ele>239.206</ele>
        <time>2018-12-28T18:12:20Z</time>
      </trkpt>
      <trkpt lat="36.391830" lon="-118.962160">
        <ele>239.626</ele>
        <time>2018-12-28T18:12:40Z</time>
      </trkpt>
      <trkpt lat="36.392010" lon="-118.962440">
        <ele>243.508</ele>
        <time>2018-12-28T18:13:00Z</time>
      </trkpt>
      <trkpt lat="36.392510" lon="-118.963170">
        <ele>250.571</ele>
        <time>2018-12-28T18:13:20Z</time>
      </trkpt>
      <trkpt lat="36.392680" lon="-118.963410">
        <ele>251.249</ele>
        <time>2018-12-28T18:13:40Z</time>
      </trkpt>
      <trkpt lat="36.393620" lon="-118.964770">
        <ele>250.344</ele>
        <time>2018-12-28T18:14:00Z</time>
      </trkpt>
      <trkpt lat="36.394380" lon="-118.965860">
        <ele>249.234</ele>
        <time>2018-12-28T18:14:20Z</time>
      </trkpt>
      <trkpt lat="36.394410" lon="-118.965910">
        <ele>248.678</ele>
        <time>2018-12-28T18:14:40Z</time>
      </trkpt>
      <trkpt lat="36.394870" lon="-118.966570">
        <ele>247.971</ele>
        <time>2018-12-28T18:15:00Z</time>
      </trkpt>
      <trkpt lat="36.394910" lon="-118.966630">
        <ele>247.822</ele>
        <time>2018-12-28T18:15:20Z</time>
      </trkpt>
      <trkpt lat="36.395320" lon="-118.967210">
        <ele>248.965</ele>
        <time>2018-12-28T18:15:40Z</time>
      </trkpt>
      <trkpt lat="36.395500" lon="-118.967510">
        <ele>249.992</ele>
        <time>2018-12-28T18:16:00Z</time>
      </trkpt>
      <trkpt lat="36.395550" lon="-118.967580">
        <ele>250.373</ele>
        <time>2018-12-28T18:16:20Z</time>
      </trkpt>
      <trkpt lat="36.395620" lon="-118.967670">
        <ele>251.120</ele>
        <time>2018-12-28T18:16:40Z</time>
      </trkpt>
      <trkpt lat="36.395650" lon="-118.967720">
        <ele>251.908</ele>
        <time>2018-12-28T18:17:00Z</time>
      </trkpt>
      <trkpt lat="36.395750" lon="-118.967840">
        <ele>253.012</ele>
        <time>2018-12-28T18:17:20Z</time>
      </trkpt>
      <trkpt lat="36.395950" lon="-118.968130">
        <ele>255.360</ele>
        <time>2018-12-28T18:17:40Z</time>
      </trkpt>
      <trkpt lat="36.396340" lon="-118.968690">
        <ele>254.565</ele>
        <time>2018-12-28T18:18:00Z</time>
      </trkpt>
      <trkpt lat="36.396800" lon="-118.969350">
        <ele>252.015</ele>
        <time>2018-12-28T18:18:20Z</time>
      </trkpt>
      <trkpt lat="36.397050" lon="-118.969690">
        <ele>252.599</ele>
        <time>2018-12-28T18:18:40Z</time>
      </trkpt>
      <trkpt lat="36.397660" lon="-118.970510">
        <ele>251.822</ele>
        <time>2018-12-28T18:19:00Z</time>
      </trkpt>
      <trkpt lat="36.397970" lon="-118.970950">
        <ele>251.033</ele>
        <time>2018-12-28T18:19:20Z</time>
      </trkpt>
      <trkpt lat="36.398150" lon="-118.971200">
        <ele>250.286</ele>
        <time>2018-12-28T18:19:40Z</time>
      </trkpt>
      <trkpt lat="36.398330" lon="-118.971460">
        <ele>249.545</ele>
        <time>2018-12-28T18:20:00Z</time>
      </trkpt>
      <trkpt lat="36.398390" lon="-118.971560">
        <ele>249.647</ele>
        <time>2018-12-28T18:20:20Z</time>
      </trkpt>
      <trkpt lat="36.398470" lon="-118.971700">
        <ele>249.511</ele>
        <time>2018-12-28T18:20:40Z</time>
      </trkpt>
      <trkpt lat="36.398550" lon="-118.971850">
        <ele>249.108</ele>
        <time>2018-12-28T18:21:00Z</time>
      </trkpt>
      <trkpt lat="36.398620" lon="-118.972010">
        <ele>249.487</ele>
        <time>2018-12-28T18:21:20Z</time>
      </trkpt>
      <trkpt lat="36.398690" lon="-118.972230">
        <ele>250.345</ele>
        <time>2018-12-28T18:21:40Z</time>
      </trkpt>
      <trkpt lat="36.398720" lon="-118.972320">
        <ele>250.610</ele>
        <time>2018-12-28T18:22:00Z</time>
      </trkpt>
      <trkpt lat="36.398760" lon="-118.972440">
        <ele>251.030</ele>
        <time>2018-12-28T18:22:20Z</time>
      </trkpt>
      <trkpt lat="36.398780" lon="-118.972570">
        <ele>251.714</ele>
        <time>2018-12-28T18:22:40Z</time>
      </trkpt>
      <trkpt lat="36.398830" lon="-118.972820">
        <ele>253.167</ele>
        <time>2018-12-28T18:23:00Z</time>
      </trkpt>
      <trkpt lat="36.398840" lon="-118.973000">
        <ele>255.948</ele>
        <time>2018-12-28T18:23:20Z</time>
      </trkpt>
      <trkpt lat="36.398850" lon="-118.973160">
        <ele>259.251</ele>
        <time>2018-12-28T18:23:40Z</time>
      </trkpt>
      <trkpt lat="36.398860" lon="-118.973360">
        <ele>260.483</ele>
        <time>2018-12-28T18:24:00Z</time>
      </trkpt>
      <trkpt lat="36.398840" lon="-118.973660">
        <ele>262.825</ele>
        <time>2018-12-28T18:24:20Z</time>
      </trkpt>
      <trkpt lat="36.398830" lon="-118.973770">
        <ele>263.617</ele>
        <time>2018-12-28T18:24:40Z</time>
      </trkpt>
      <trkpt lat="36.398800" lon="-118.973930">
        <ele>264.108</ele>
        <time>2018-12-28T18:25:00Z</time>
      </trkpt>
      <trkpt lat="36.398770" lon="-118.974160">
        <ele>263.651</ele>
        <time>2018-12-28T18:25:20Z</time>
      </trkpt>
      <trkpt lat="36.398720" lon="-118.974330">
        <ele>263.799</ele>
        <time>2018-12-28T18:25:40Z</time>
      </trkpt>
      <trkpt lat="36.398670" lon="-118.974500">
        <ele>263.144</ele>
        <time>2018-12-28T18:26:00Z</time>
      </trkpt>
      <trkpt lat="36.398630" lon="-118.974620">
        <ele>262.964</ele>
        <time>2018-12-28T18:26:20Z</time>
      </trkpt>
      <trkpt lat="36.398580" lon="-118.974760">
        <ele>262.978</ele>
        <time>2018-12-28T18:26:40Z</time>
      </trkpt>
      <trkpt lat="36.398530" lon="-118.974860">
        <ele>263.411</ele>
        <time>2018-12-28T18:27:00Z</time>
      </trkpt>
      <trkpt lat="36.398490" lon="-118.974950">
        <ele>263.872</ele>
        <time>2018-12-28T18:27:20Z</time>
      </trkpt>
      <trkpt lat="36.398420" lon="-118.975080">
        <ele>263.895</ele>
        <time>2018-12-28T18:27:40Z</time>
      </trkpt>
      <trkpt lat="36.398300" lon="-118.975300">
        <ele>262.448</ele>
        <time>2018-12-28T18:28:00Z</time>
      </trkpt>
      <trkpt lat="36.398190" lon="-118.975520">
        <ele>260.561</ele>
        <time>2018-12-28T18:28:20Z</time>
      </trkpt>
      <trkpt lat="36.398070" lon="-118.975740">
        <ele>257.517</ele>
        <time>2018-12-28T18:28:40Z</time>
      </trkpt>
      <trkpt lat="36.397940" lon="-118.975990">
        <ele>256.808</ele>
        <time>2018-12-28T18:29:00Z</time>
      </trkpt>
      <trkpt lat="36.397770" lon="-118.976300">
        <ele>256.577</ele>
        <time>2018-12-28T18:29:20Z</time>
      </trkpt>
      <trkpt lat="36.397650" lon="-118.976520">
        <ele>256.745</ele>
        <time>2018-12-28T18:29:40Z</time>
      </trkpt>
      <trkpt lat="36.397520" lon="-118.976750">
        <ele>257.470</ele>
        <time>2018-12-28T18:30:00Z</time>
      </trkpt>
      <trkpt lat="36.397400" lon="-118.977000">
        <ele>256.970</ele>
        <time>2018-12-28T18:30:20Z</time>
      </trkpt>
      <trkpt lat="36.397330" lon="-118.977160">
        <ele>257.534</ele>
        <time>2018-12-28T18:30:40Z</time>
      </trkpt>
      <trkpt lat="36.397250" lon="-118.977380">
        <ele>257.647</ele>
        <time>2018-12-28T18:31:00Z</time>
      </trkpt>
      <trkpt lat="36.397220" lon="-118.977500">
        <ele>257.358</ele>
        <time>2018-12-28T18:31:20Z</time>
      </trkpt>
      <trkpt lat="36.397160" lon="-118.977730">
        <ele>256.321</ele>
        <time>2018-12-28T18:31:40Z</time>
      </trkpt>
      <trkpt lat="36.397130" lon="-118.977850">
        <ele>255.876</ele>
        <time>2018-12-28T18:32:00Z</time>
      </trkpt>
      <trkpt lat="36.397100" lon="-118.978080">
        <ele>253.190</ele>
        <time>2018-12-28T18:32:20Z</time>
      </trkpt>
      <trkpt lat="36.397070" lon="-118.978330">
        <ele>248.219</ele>
        <time>2018-12-28T18:32:40Z</time>
      </trkpt>
      <trkpt lat="36.397060" lon="-118.978480">
        <ele>244.808</ele>
        <time>2018-12-28T18:33:00Z</time>
      </trkpt>
      <trkpt lat="36.397060" lon="-118.978680">
        <ele>242.710</ele>
        <time>2018-12-28T18:33:20Z</time>
      </trkpt>
      <trkpt lat="36.397070" lon="-118.978820">
        <ele>241.088</ele>
        <time>2018-12-28T18:33:40Z</time>
      </trkpt>
      <trkpt lat="36.397080" lon="-118.979020">
        <ele>239.333</ele>
        <time>2018-12-28T18:34:00Z</time>
      </trkpt>
      <trkpt lat="36.397100" lon="-118.979200">
        <ele>238.023</ele>
        <time>2018-12-28T18:34:20Z</time>
      </trkpt>
      <trkpt lat="36.397140" lon="-118.979440">
        <ele>236.667</ele>
        <time>2018-12-28T18:34:40Z</time>
      </trkpt>
      <trkpt lat="36.397200" lon="-118.979700">
        <ele>236.080</ele>
        <time>2018-12-28T18:35:00Z</time>
      </trkpt>
      <trkpt lat="36.397260" lon="-118.979900">
        <ele>235.831</ele>
        <time>2018-12-28T18:35:20Z</time>
      </trkpt>
      <trkpt lat="36.397340" lon="-118.980100">
        <ele>235.234</ele>
        <time>2018-12-28T18:35:40Z</time>
      </trkpt>
      <trkpt lat="36.397370" lon="-118.980180">
        <ele>235.027</ele>
        <time>2018-12-28T18:36:00Z</time>
      </trkpt>
      <trkpt lat="36.397430" lon="-118.980320">
        <ele>234.768</ele>
        <time>2018-12-28T18:36:20Z</time>
      </trkpt>
      <trkpt lat="36.397730" lon="-118.980930">
        <ele>234.414</ele>
        <time>2018-12-28T18:36:40Z</time>
      </trkpt>
      <trkpt lat="36.397960" lon="-118.981390">
        <ele>234.408</ele>
        <time>2018-12-28T18:37:00Z</time>
      </trkpt>
      <trkpt lat="36.398060" lon="-118.981600">
        <ele>233.865</ele>
        <time>2018-12-28T18:37:20Z</time>
      </trkpt>
      <trkpt lat="36.398090" lon="-118.981670">
        <ele>233.533</ele>
        <time>2018-12-28T18:37:40Z</time>
      </trkpt>
      <trkpt lat="36.398140" lon="-118.981810">
        <ele>233.798</ele>
        <time>2018-12-28T18:38:00Z</time>
      </trkpt>
      <trkpt lat="36.398180" lon="-118.981920">
        <ele>233.288</ele>
        <time>2018-12-28T18:38:20Z</time>
      </trkpt>
      <trkpt lat="36.398210" lon="-118.982000">
        <ele>232.472</ele>
        <time>2018-12-28T18:38:40Z</time>
      </trkpt>
      <trkpt lat="36.398250" lon="-118.982130">
        <ele>231.175</ele>
        <time>2018-12-28T18:39:00Z</time>
      </trkpt>
      <trkpt lat="36.398280" lon="-118.982260">
        <ele>231.136</ele>
        <time>2018-12-28T18:39:20Z</time>
      </trkpt>
      <trkpt lat="36.398310" lon="-118.982420">
        <ele>231.649</ele>
        <time>2018-12-28T18:39:40Z</time>
      </trkpt>
      <trkpt lat="36.398340" lon="-118.982590">
        <ele>232.129</ele>
        <time>2018-12-28T18:40:00Z</time>
      </trkpt>
      <trkpt lat="36.398350" lon="-118.982690">
        <ele>232.400</ele>
        <time>2018-12-28T18:40:20Z</time>
      </trkpt>
      <trkpt lat="36.398360" lon="-118.982870">
        <ele>232.820</ele>
        <time>2018-12-28T18:40:40Z</time>
      </trkpt>
      <trkpt lat="36.398370" lon="-118.983040">
        <ele>232.908</ele>
        <time>2018-12-28T18:41:00Z</time>
      </trkpt>
      <trkpt lat="36.398360" lon="-118.983230">
        <ele>232.885</ele>
        <time>2018-12-28T18:41:20Z</time>
      </trkpt>
      <trkpt lat="36.398360" lon="-118.983350">
        <ele>232.623</ele>
        <time>2018-12-28T18:41:40Z</time>
      </trkpt>
      <trkpt lat="36.398340" lon="-118.983490">
        <ele>232.518</ele>
        <time>2018-12-28T18:42:00Z</time>
      </trkpt>
      <trkpt lat="36.398320" lon="-118.983620">
        <ele>232.348</ele>
        <time>2018-12-28T18:42:20Z</time>
      </trkpt>
      <trkpt lat="36.398290" lon="-118.983790">
        <ele>232.032</ele>
        <time>2018-12-28T18:42:40Z</time>
      </trkpt>
      <trkpt lat="36.398250" lon="-118.983960">
        <ele>231.785</ele>
        <time>2018-12-28T18:43:00Z</time>
      </trkpt>
      <trkpt lat="36.398200" lon="-118.984140">
        <ele>232.436</ele>
        <time>2018-12-28T18:43:20Z</time>
      </trkpt>
      <trkpt lat="36.398150" lon="-118.984260">
        <ele>232.739</ele>
        <time>2018-12-28T18:43:40Z</time>
      </trkpt>
      <trkpt lat="36.398120" lon="-118.984350">
        <ele>232.563</ele>
        <time>2018-12-28T18:44:00Z</time>
      </trkpt>
      <trkpt lat="36.398070" lon="-118.984460">
        <ele>232.644</ele>
        <time>2018-12-28T18:44:20Z</time>
      </trkpt>
      <trkpt lat="36.398040" lon="-118.984520">
        <ele>232.618</ele>
        <time>2018-12-28T18:44:40Z</time>
      </trkpt>
      <trkpt lat="36.398000" lon="-118.984610">
        <ele>232.508</ele>
        <time>2018-12-28T18:45:00Z</time>
      </trkpt>
      <trkpt lat="36.397970" lon="-118.984660">
        <ele>232.489</ele>
        <time>2018-12-28T18:45:20Z</time>
      </trkpt>
      <trkpt lat="36.397870" lon="-118.984840">
        <ele>232.857</ele>
        <time>2018-12-28T18:45:40Z</time>
      </trkpt>
      <trkpt lat="36.397800" lon="-118.984940">
        <ele>232.742</ele>
        <time>2018-12-28T18:46:00Z</time>
      </trkpt>
      <trkpt lat="36.397780" lon="-118.984970">
        <ele>232.772</ele>
        <time>2018-12-28T18:46:20Z</time>
      </trkpt>
      <trkpt lat="36.397760" lon="-118.985000">
        <ele>232.716</ele>
        <time>2018-12-28T18:46:40Z</time>
      </trkpt>
      <trkpt lat="36.397740" lon="-118.985020">
        <ele>232.739</ele>
        <time>2018-12-28T18:47:00Z</time>
      </trkpt>
      <trkpt lat="36.397700" lon="-118.985080">
        <ele>232.620</ele>
        <time>2018-12-28T18:47:20Z</time>
      </trkpt>
      <trkpt lat="36.397630" lon="-118.985160">
        <ele>232.743</ele>
        <time>2018-12-28T18:47:40Z</time>
      </trkpt>
      <trkpt lat="36.397450" lon="-118.985360">
        <ele>233.017</ele>
        <time>2018-12-28T18:48:00Z</time>
      </trkpt>
      <trkpt lat="36.397130" lon="-118.985720">
        <ele>227.987</ele>
        <time>2018-12-28T18:48:20Z</time>
      </trkpt>
      <trkpt lat="36.396820" lon="-118.986060">
        <ele>222.815</ele>
        <time>2018-12-28T18:48:40Z</time>
      </trkpt>
      <trkpt lat="36.396550" lon="-118.986360">
        <ele>222.808</ele>
        <time>2018-12-28T18:49:00Z</time>
      </trkpt>
      <trkpt lat="36.396490" lon="-118.986430">
        <ele>222.994</ele>
        <time>2018-12-28T18:49:20Z</time>
      </trkpt>
      <trkpt lat="36.396430" lon="-118.986490">
        <ele>223.332</ele>
        <time>2018-12-28T18:49:40Z</time>
      </trkpt>
      <trkpt lat="36.396380" lon="-118.986540">
        <ele>223.677</ele>
        <time>2018-12-28T18:50:00Z</time>
      </trkpt>
      <trkpt lat="36.396350" lon="-118.986590">
        <ele>223.627</ele>
        <time>2018-12-28T18:50:20Z</time>
      </trkpt>
      <trkpt lat="36.396270" lon="-118.986690">
        <ele>223.761</ele>
        <time>2018-12-28T18:50:40Z</time>
      </trkpt>
      <trkpt lat="36.396220" lon="-118.986770">
        <ele>223.574</ele>
        <time>2018-12-28T18:51:00Z</time>
      </trkpt>
      <trkpt lat="36.396160" lon="-118.986870">
        <ele>223.535</ele>
        <time>2018-12-28T18:51:20Z</time>
      </trkpt>
      <trkpt lat="36.396120" lon="-118.986930">
        <ele>223.578</ele>
        <time>2018-12-28T18:51:40Z</time>
      </trkpt>
      <trkpt lat="36.396100" lon="-118.986970">
        <ele>223.456</ele>
        <time>2018-12-28T18:52:00Z</time>
      </trkpt>
      <trkpt lat="36.396080" lon="-118.987020">
        <ele>223.259</ele>
        <time>2018-12-28T18:52:20Z</time>
      </trkpt>
      <trkpt lat="36.396040" lon="-118.987080">
        <ele>223.114</ele>
        <time>2018-12-28T18:52:40Z</time>
      </trkpt>
      <trkpt lat="36.396010" lon="-118.987150">
        <ele>223.008</ele>
        <time>2018-12-28T18:53:00Z</time>
      </trkpt>
      <trkpt lat="36.396000" lon="-118.987170">
        <ele>223.068</ele>
        <time>2018-12-28T18:53:20Z</time>
      </trkpt>
      <trkpt lat="36.395970" lon="-118.987240">
        <ele>222.996</ele>
        <time>2018-12-28T18:53:40Z</time>
      </trkpt>
      <trkpt lat="36.395930" lon="-118.987340">
        <ele>222.981</ele>
        <time>2018-12-28T18:54:00Z</time>
      </trkpt>
      <trkpt lat="36.395890" lon="-118.987440">
        <ele>223.481</ele>
        <time>2018-12-28T18:54:20Z</time>
      </trkpt>
      <trkpt lat="36.395850" lon="-118.987550">
        <ele>224.115</ele>
        <time>2018-12-28T18:54:40Z</time>
      </trkpt>
      <trkpt lat="36.395820" lon="-118.987680">
        <ele>224.838</ele>
        <time>2018-12-28T18:55:00Z</time>
      </trkpt>
      <trkpt lat="36.395810" lon="-118.987710">
        <ele>225.059</ele>
        <time>2018-12-28T18:55:20Z</time>
      </trkpt>
      <trkpt lat="36.395800" lon="-118.987780">
        <ele>225.252</ele>
        <time>2018-12-28T18:55:40Z</time>
      </trkpt>
      <trkpt lat="36.395770" lon="-118.987910">
        <ele>225.887</ele>
        <time>2018-12-28T18:56:00Z</time>
      </trkpt>
      <trkpt lat="36.395740" lon="-118.988140">
        <ele>226.242</ele>
        <time>2018-12-28T18:56:20Z</time>
      </trkpt>
      <trkpt lat="36.395720" lon="-118.988250">
        <ele>226.426</ele>
        <time>2018-12-28T18:56:40Z</time>
      </trkpt>
      <trkpt lat="36.395710" lon="-118.988400">
        <ele>226.008</ele>
        <time>2018-12-28T18:57:00Z</time>
      </trkpt>
      <trkpt lat="36.395710" lon="-118.988510">
        <ele>225.461</ele>
        <time>2018-12-28T18:57:20Z</time>
      </trkpt>
      <trkpt lat="36.395710" lon="-118.988670">
        <ele>224.259</ele>
        <time>2018-12-28T18:57:40Z</time>
      </trkpt>
      <trkpt lat="36.395730" lon="-118.988850">
        <ele>222.854</ele>
        <time>2018-12-28T18:58:00Z</time>
      </trkpt>
      <trkpt lat="36.395750" lon="-118.989040">
        <ele>221.744</ele>
        <time>2018-12-28T18:58:20Z</time>
      </trkpt>
      <trkpt lat="36.395770" lon="-118.989160">
        <ele>221.478</ele>
        <time>2018-12-28T18:58:40Z</time>
      </trkpt>
      <trkpt lat="36.395800" lon="-118.989320">
        <ele>221.131</ele>
        <time>2018-12-28T18:59:00Z</time>
      </trkpt>
      <trkpt lat="36.395820" lon="-118.989420">
        <ele>221.142</ele>
        <time>2018-12-28T18:59:20Z</time>
      </trkpt>
      <trkpt lat="36.395860" lon="-118.989560">
        <ele>221.165</ele>
        <time>2018-12-28T18:59:40Z</time>
      </trkpt>
      <trkpt lat="36.395930" lon="-118.989750">
        <ele>221.726</ele>
        <time>2018-12-28T19:00:00Z</time>
      </trkpt>
      <trkpt lat="36.395950" lon="-118.989820">
        <ele>221.947</ele>
        <time>2018-12-28T19:00:20Z</time>
      </trkpt>
      <trkpt lat="36.395990" lon="-118.989910">
        <ele>222.311</ele>
        <time>2018-12-28T19:00:40Z</time>
      </trkpt>
      <trkpt lat="36.396060" lon="-118.990070">
        <ele>223.508</ele>
        <time>2018-12-28T19:01:00Z</time>
      </trkpt>
      <trkpt lat="36.396130" lon="-118.990190">
        <ele>224.595</ele>
        <time>2018-12-28T19:01:20Z</time>
      </trkpt>
      <trkpt lat="36.396160" lon="-118.990250">
        <ele>225.253</ele>
        <time>2018-12-28T19:01:40Z</time>
      </trkpt>
      <trkpt lat="36.396220" lon="-118.990350">
        <ele>226.268</ele>
        <time>2018-12-28T19:02:00Z</time>
      </trkpt>
      <trkpt lat="36.396280" lon="-118.990430">
        <ele>226.868</ele>
        <time>2018-12-28T19:02:20Z</time>
      </trkpt>
      <trkpt lat="36.396330" lon="-118.990490">
        <ele>227.072</ele>
        <time>2018-12-28T19:02:40Z</time>
      </trkpt>
      <trkpt lat="36.396430" lon="-118.990610">
        <ele>227.235</ele>
        <time>2018-12-28T19:03:00Z</time>
      </trkpt>
      <trkpt lat="36.396520" lon="-118.990710">
        <ele>227.196</ele>
        <time>2018-12-28T19:03:20Z</time>
      </trkpt>
      <trkpt lat="36.396620" lon="-118.990820">
        <ele>227.139</ele>
        <time>2018-12-28T19:03:40Z</time>
      </trkpt>
      <trkpt lat="36.396680" lon="-118.990880">
        <ele>227.048</ele>
        <time>2018-12-28T19:04:00Z</time>
      </trkpt>
      <trkpt lat="36.396760" lon="-118.990950">
        <ele>226.861</ele>
        <time>2018-12-28T19:04:20Z</time>
      </trkpt>
      <trkpt lat="36.396810" lon="-118.990990">
        <ele>226.717</ele>
        <time>2018-12-28T19:04:40Z</time>
      </trkpt>
      <trkpt lat="36.396870" lon="-118.991030">
        <ele>226.208</ele>
        <time>2018-12-28T19:05:00Z</time>
      </trkpt>
      <trkpt lat="36.396980" lon="-118.991100">
        <ele>225.557</ele>
        <time>2018-12-28T19:05:20Z</time>
      </trkpt>
      <trkpt lat="36.397020" lon="-118.991130">
        <ele>225.525</ele>
        <time>2018-12-28T19:05:40Z</time>
      </trkpt>
      <trkpt lat="36.397090" lon="-118.991170">
        <ele>225.360</ele>
        <time>2018-12-28T19:06:00Z</time>
      </trkpt>
      <trkpt lat="36.397170" lon="-118.991210">
        <ele>225.330</ele>
        <time>2018-12-28T19:06:20Z</time>
      </trkpt>
      <trkpt lat="36.397270" lon="-118.991260">
        <ele>225.594</ele>
        <time>2018-12-28T19:06:40Z</time>
      </trkpt>
      <trkpt lat="36.397340" lon="-118.991290">
        <ele>225.617</ele>
        <time>2018-12-28T19:07:00Z</time>
      </trkpt>
      <trkpt lat="36.397400" lon="-118.991310">
        <ele>225.878</ele>
        <time>2018-12-28T19:07:20Z</time>
      </trkpt>
      <trkpt lat="36.397480" lon="-118.991330">
        <ele>226.291</ele>
        <time>2018-12-28T19:07:40Z</time>
      </trkpt>
      <trkpt lat="36.397540" lon="-118.991350">
        <ele>226.646</ele>
        <time>2018-12-28T19:08:00Z</time>
      </trkpt>
      <trkpt lat="36.397610" lon="-118.991360">
        <ele>226.888</ele>
        <time>2018-12-28T19:08:20Z</time>
      </trkpt>
      <trkpt lat="36.397670" lon="-118.991370">
        <ele>227.016</ele>
        <time>2018-12-28T19:08:40Z</time>
      </trkpt>
      <trkpt lat="36.397810" lon="-118.991390">
        <ele>227.608</ele>
        <time>2018-12-28T19:09:00Z</time>
      </trkpt>
      <trkpt lat="36.397830" lon="-118.991390">
        <ele>227.747</ele>
        <time>2018-12-28T19:09:20Z</time>
      </trkpt>
      <trkpt lat="36.397920" lon="-118.991400">
        <ele>228.015</ele>
        <time>2018-12-28T19:09:40Z</time>
      </trkpt>
      <trkpt lat="36.397980" lon="-118.991400">
        <ele>228.490</ele>
        <time>2018-12-28T19:10:00Z</time>
      </trkpt>
      <trkpt lat="36.398060" lon="-118.991400">
        <ele>229.050</ele>
        <time>2018-12-28T19:10:20Z</time>
      </trkpt>
      <trkpt lat="36.398120" lon="-118.991400">
        <ele>229.534</ele>
        <time>2018-12-28T19:10:40Z</time>
      </trkpt>
      <trkpt lat="36.398180" lon="-118.991390">
        <ele>229.787</ele>
        <time>2018-12-28T19:11:00Z</time>
      </trkpt>
      <trkpt lat="36.398230" lon="-118.991390">
        <ele>230.198</ele>
        <time>2018-12-28T19:11:20Z</time>
      </trkpt>
      <trkpt lat="36.398330" lon="-118.991370">
        <ele>230.471</ele>
        <time>2018-12-28T19:11:40Z</time>
      </trkpt>
      <trkpt lat="36.398460" lon="-118.991350">
        <ele>231.097</ele>
        <time>2018-12-28T19:12:00Z</time>
      </trkpt>
      <trkpt lat="36.398520" lon="-118.991340">
        <ele>231.023</ele>
        <time>2018-12-28T19:12:20Z</time>
      </trkpt>
      <trkpt lat="36.398570" lon="-118.991320">
        <ele>230.725</ele>
        <time>2018-12-28T19:12:40Z</time>
      </trkpt>
      <trkpt lat="36.398630" lon="-118.991300">
        <ele>230.508</ele>
        <time>2018-12-28T19:13:00Z</time>
      </trkpt>
      <trkpt lat="36.398670" lon="-118.991290">
        <ele>230.572</ele>
        <time>2018-12-28T19:13:20Z</time>
      </trkpt>
      <trkpt lat="36.398790" lon="-118.991240">
        <ele>230.160</ele>
        <time>2018-12-28T19:13:40Z</time>
      </trkpt>
      <trkpt lat="36.398880" lon="-118.991200">
        <ele>230.275</ele>
        <time>2018-12-28T19:14:00Z</time>
      </trkpt>
      <trkpt lat="36.398980" lon="-118.991150">
        <ele>230.385</ele>
        <time>2018-12-28T19:14:20Z</time>
      </trkpt>
      <trkpt lat="36.399070" lon="-118.991100">
        <ele>230.799</ele>
        <time>2018-12-28T19:14:40Z</time>
      </trkpt>
      <trkpt lat="36.399220" lon="-118.991030">
        <ele>231.352</ele>
        <time>2018-12-28T19:15:00Z</time>
      </trkpt>
      <trkpt lat="36.399770" lon="-118.990760">
        <ele>228.633</ele>
        <time>2018-12-28T19:15:20Z</time>
      </trkpt>
      <trkpt lat="36.400690" lon="-118.990320">
        <ele>225.096</ele>
        <time>2018-12-28T19:15:40Z</time>
      </trkpt>
      <trkpt lat="36.401350" lon="-118.989990">
        <ele>223.969</ele>
        <time>2018-12-28T19:16:00Z</time>
      </trkpt>
      <trkpt lat="36.401760" lon="-118.989790">
        <ele>224.604</ele>
        <time>2018-12-28T19:16:20Z</time>
      </trkpt>
      <trkpt lat="36.402240" lon="-118.989560">
        <ele>226.524</ele>
        <time>2018-12-28T19:16:40Z</time>
      </trkpt>
      <trkpt lat="36.402370" lon="-118.989500">
        <ele>226.808</ele>
        <time>2018-12-28T19:17:00Z</time>
      </trkpt>
      <trkpt lat="36.402510" lon="-118.989440">
        <ele>226.439</ele>
        <time>2018-12-28T19:17:20Z</time>
      </trkpt>
      <trkpt lat="36.402660" lon="-118.989390">
        <ele>226.057</ele>
        <time>2018-12-28T19:17:40Z</time>
      </trkpt>
      <trkpt lat="36.402780" lon="-118.989360">
        <ele>226.162</ele>
        <time>2018-12-28T19:18:00Z</time>
      </trkpt>
      <trkpt lat="36.403020" lon="-118.989320">
        <ele>226.482</ele>
        <time>2018-12-28T19:18:20Z</time>
      </trkpt>
      <trkpt lat="36.403160" lon="-118.989300">
        <ele>226.516</ele>
        <time>2018-12-28T19:18:40Z</time>
      </trkpt>
      <trkpt lat="36.403310" lon="-118.989300">
        <ele>226.869</ele>
        <time>2018-12-28T19:19:00Z</time>
      </trkpt>
      <trkpt lat="36.403450" lon="-118.989300">
        <ele>227.020</ele>
        <time>2018-12-28T19:19:20Z</time>
      </trkpt>
      <trkpt lat="36.403590" lon="-118.989310">
        <ele>227.553</ele>
        <time>2018-12-28T19:19:40Z</time>
      </trkpt>
      <trkpt lat="36.403730" lon="-118.989330">
        <ele>228.497</ele>
        <time>2018-12-28T19:20:00Z</time>
      </trkpt>
      <trkpt lat="36.403820" lon="-118.989350">
        <ele>229.123</ele>
        <time>2018-12-28T19:20:20Z</time>
      </trkpt>
      <trkpt lat="36.403880" lon="-118.989360">
        <ele>229.425</ele>
        <time>2018-12-28T19:20:40Z</time>
      </trkpt>
      <trkpt lat="36.403940" lon="-118.989380">
        <ele>230.008</ele>
        <time>2018-12-28T19:21:00Z</time>
      </trkpt>
      <trkpt lat="36.404090" lon="-118.989420">
        <ele>230.752</ele>
        <time>2018-12-28T19:21:20Z</time>
      </trkpt>
      <trkpt lat="36.404250" lon="-118.989490">
        <ele>230.720</ele>
        <time>2018-12-28T19:21:40Z</time>
      </trkpt>
      <trkpt lat="36.404340" lon="-118.989520">
        <ele>230.285</ele>
        <time>2018-12-28T19:22:00Z</time>
      </trkpt>
      <trkpt lat="36.404440" lon="-118.989580">
        <ele>230.355</ele>
        <time>2018-12-28T19:22:20Z</time>
      </trkpt>
      <trkpt lat="36.404500" lon="-118.989610">
        <ele>230.739</ele>
        <time>2018-12-28T19:22:40Z</time>
      </trkpt>
      <trkpt lat="36.404680" lon="-118.989720">
        <ele>230.252</ele>
        <time>2018-12-28T19:23:00Z</time>
      </trkpt>
      <trkpt lat="36.404760" lon="-118.989780">
        <ele>229.883</ele>
        <time>2018-12-28T19:23:20Z</time>
      </trkpt>
      <trkpt lat="36.404810" lon="-118.989820">
        <ele>229.696</ele>
        <time>2018-12-28T19:23:40Z</time>
      </trkpt>
      <trkpt lat="36.404920" lon="-118.989910">
        <ele>228.867</ele>
        <time>2018-12-28T19:24:00Z</time>
      </trkpt>
      <trkpt lat="36.404980" lon="-118.989970">
        <ele>228.581</ele>
        <time>2018-12-28T19:24:20Z</time>
      </trkpt>
      <trkpt lat="36.405090" lon="-118.990060">
        <ele>227.519</ele>
        <time>2018-12-28T19:24:40Z</time>
      </trkpt>
      <trkpt lat="36.405210" lon="-118.990190">
        <ele>226.308</ele>
        <time>2018-12-28T19:25:00Z</time>
      </trkpt>
      <trkpt lat="36.405250" lon="-118.990250">
        <ele>226.099</ele>
        <time>2018-12-28T19:25:20Z</time>
      </trkpt>
      <trkpt lat="36.405320" lon="-118.990330">
        <ele>225.127</ele>
        <time>2018-12-28T19:25:40Z</time>
      </trkpt>
      <trkpt lat="36.405380" lon="-118.990400">
        <ele>224.392</ele>
        <time>2018-12-28T19:26:00Z</time>
      </trkpt>
      <trkpt lat="36.405440" lon="-118.990490">
        <ele>224.062</ele>
        <time>2018-12-28T19:26:20Z</time>
      </trkpt>
      <trkpt lat="36.405500" lon="-118.990580">
        <ele>223.996</ele>
        <time>2018-12-28T19:26:40Z</time>
      </trkpt>
      <trkpt lat="36.405560" lon="-118.990680">
        <ele>224.279</ele>
        <time>2018-12-28T19:27:00Z</time>
      </trkpt>
      <trkpt lat="36.405610" lon="-118.990760">
        <ele>224.630</ele>
        <time>2018-12-28T19:27:20Z</time>
      </trkpt>
      <trkpt lat="36.405670" lon="-118.990850">
        <ele>225.043</ele>
        <time>2018-12-28T19:27:40Z</time>
      </trkpt>
      <trkpt lat="36.405710" lon="-118.990930">
        <ele>225.752</ele>
        <time>2018-12-28T19:28:00Z</time>
      </trkpt>
      <trkpt lat="36.405750" lon="-118.991010">
        <ele>226.353</ele>
        <time>2018-12-28T19:28:20Z</time>
      </trkpt>
      <trkpt lat="36.405770" lon="-118.991060">
        <ele>226.708</ele>
        <time>2018-12-28T19:28:40Z</time>
      </trkpt>
      <trkpt lat="36.405850" lon="-118.991220">
        <ele>227.108</ele>
        <time>2018-12-28T19:29:00Z</time>
      </trkpt>
      <trkpt lat="36.405920" lon="-118.991440">
        <ele>227.478</ele>
        <time>2018-12-28T19:29:20Z</time>
      </trkpt>
      <trkpt lat="36.405950" lon="-118.991520">
        <ele>227.276</ele>
        <time>2018-12-28T19:29:40Z</time>
      </trkpt>
      <trkpt lat="36.405980" lon="-118.991640">
        <ele>227.121</ele>
        <time>2018-12-28T19:30:00Z</time>
      </trkpt>
      <trkpt lat="36.406010" lon="-118.991700">
        <ele>226.481</ele>
        <time>2018-12-28T19:30:20Z</time>
      </trkpt>
      <trkpt lat="36.406010" lon="-118.991710">
        <ele>226.535</ele>
        <time>2018-12-28T19:30:40Z</time>
      </trkpt>
      <trkpt lat="36.406020" lon="-118.991720">
        <ele>226.288</ele>
        <time>2018-12-28T19:31:00Z</time>
      </trkpt>
      <trkpt lat="36.406020" lon="-118.991740">
        <ele>226.469</ele>
        <time>2018-12-28T19:31:20Z</time>
      </trkpt>
      <trkpt lat="36.406040" lon="-118.991790">
        <ele>226.322</ele>
        <time>2018-12-28T19:31:40Z</time>
      </trkpt>
      <trkpt lat="36.406050" lon="-118.991840">
        <ele>226.572</ele>
        <time>2018-12-28T19:32:00Z</time>
      </trkpt>
      <trkpt lat="36.406080" lon="-118.992000">
        <ele>226.813</ele>
        <time>2018-12-28T19:32:20Z</time>
      </trkpt>
      <trkpt lat="36.406100" lon="-118.992110">
        <ele>226.914</ele>
        <time>2018-12-28T19:32:40Z</time>
      </trkpt>
      <trkpt lat="36.406110" lon="-118.992170">
        <ele>226.708</ele>
        <time>2018-12-28T19:33:00Z</time>
      </trkpt>
      <trkpt lat="36.406110" lon="-118.992220">
        <ele>226.810</ele>
        <time>2018-12-28T19:33:20Z</time>
      </trkpt>
      <trkpt lat="36.406110" lon="-118.992270">
        <ele>226.818</ele>
        <time>2018-12-28T19:33:40Z</time>
      </trkpt>
      <trkpt lat="36.406120" lon="-118.992360">
        <ele>226.753</ele>
        <time>2018-12-28T19:34:00Z</time>
      </trkpt>
      <trkpt lat="36.406120" lon="-118.992400">
        <ele>226.423</ele>
        <time>2018-12-28T19:34:20Z</time>
      </trkpt>
      <trkpt lat="36.406120" lon="-118.992440">
        <ele>226.117</ele>
        <time>2018-12-28T19:34:40Z</time>
      </trkpt>
      <trkpt lat="36.406130" lon="-118.992590">
        <ele>224.850</ele>
        <time>2018-12-28T19:35:00Z</time>
      </trkpt>
      <trkpt lat="36.406130" lon="-118.992780">
        <ele>223.711</ele>
        <time>2018-12-28T19:35:20Z</time>
      </trkpt>
      <trkpt lat="36.406120" lon="-118.992920">
        <ele>223.294</ele>
        <time>2018-12-28T19:35:40Z</time>
      </trkpt>
      <trkpt lat="36.406100" lon="-118.993250">
        <ele>221.676</ele>
        <time>2018-12-28T19:36:00Z</time>
      </trkpt>
      <trkpt lat="36.406070" lon="-118.993400">
        <ele>222.190</ele>
        <time>2018-12-28T19:36:20Z</time>
      </trkpt>
      <trkpt lat="36.406040" lon="-118.993560">
        <ele>222.919</ele>
        <time>2018-12-28T19:36:40Z</time>
      </trkpt>
      <trkpt lat="36.406010" lon="-118.993720">
        <ele>223.808</ele>
        <time>2018-12-28T19:37:00Z</time>
      </trkpt>
      <trkpt lat="36.405970" lon="-118.993870">
        <ele>224.910</ele>
        <time>2018-12-28T19:37:20Z</time>
      </trkpt>
      <trkpt lat="36.405750" lon="-118.994490">
        <ele>225.648</ele>
        <time>2018-12-28T19:37:40Z</time>
      </trkpt>
      <trkpt lat="36.405550" lon="-118.995080">
        <ele>225.423</ele>
        <time>2018-12-28T19:38:00Z</time>
      </trkpt>
      <trkpt lat="36.405450" lon="-118.995390">
        <ele>224.983</ele>
        <time>2018-12-28T19:38:20Z</time>
      </trkpt>
      <trkpt lat="36.405280" lon="-118.995850">
        <ele>227.047</ele>
        <time>2018-12-28T19:38:40Z</time>
      </trkpt>
      <trkpt lat="36.405080" lon="-118.996440">
        <ele>229.020</ele>
        <time>2018-12-28T19:39:00Z</time>
      </trkpt>
      <trkpt lat="36.404980" lon="-118.996720">
        <ele>229.851</ele>
        <time>2018-12-28T19:39:20Z</time>
      </trkpt>
      <trkpt lat="36.404920" lon="-118.996870">
        <ele>231.194</ele>
        <time>2018-12-28T19:39:40Z</time>
      </trkpt>
      <trkpt lat="36.404870" lon="-118.997000">
        <ele>233.941</ele>
        <time>2018-12-28T19:40:00Z</time>
      </trkpt>
      <trkpt lat="36.404810" lon="-118.997140">
        <ele>237.281</ele>
        <time>2018-12-28T19:40:20Z</time>
      </trkpt>
      <trkpt lat="36.404740" lon="-118.997330">
        <ele>238.409</ele>
        <time>2018-12-28T19:40:40Z</time>
      </trkpt>
      <trkpt lat="36.404520" lon="-118.997970">
        <ele>239.508</ele>
        <time>2018-12-28T19:41:00Z</time>
      </trkpt>
      <trkpt lat="36.404210" lon="-118.998880">
        <ele>237.817</ele>
        <time>2018-12-28T19:41:20Z</time>
      </trkpt>
      <trkpt lat="36.404160" lon="-118.999020">
        <ele>237.845</ele>
        <time>2018-12-28T19:41:40Z</time>
      </trkpt>
      <trkpt lat="36.403990" lon="-118.999550">
        <ele>235.040</ele>
        <time>2018-12-28T19:42:00Z</time>
      </trkpt>
      <trkpt lat="36.403860" lon="-118.999950">
        <ele>227.740</ele>
        <time>2018-12-28T19:42:20Z</time>
      </trkpt>
      <trkpt lat="36.403810" lon="-119.000080">
        <ele>227.154</ele>
        <time>2018-12-28T19:42:40Z</time>
      </trkpt>
      <trkpt lat="36.403560" lon="-119.000750">
        <ele>231.027</ele>
        <time>2018-12-28T19:43:00Z</time>
      </trkpt>
      <trkpt lat="36.403550" lon="-119.000800">
        <ele>231.348</ele>
        <time>2018-12-28T19:43:20Z</time>
      </trkpt>
      <trkpt lat="36.403480" lon="-119.000950">
        <ele>233.691</ele>
        <time>2018-12-28T19:43:40Z</time>
      </trkpt>
      <trkpt lat="36.403400" lon="-119.001190">
        <ele>239.446</ele>
        <time>2018-12-28T19:44:00Z</time>
      </trkpt>
      <trkpt lat="36.403300" lon="-119.001530">
        <ele>244.688</ele>
        <time>2018-12-28T19:44:20Z</time>
      </trkpt>
      <trkpt lat="36.403170" lon="-119.001930">
        <ele>247.216</ele>
        <time>2018-12-28T19:44:40Z</time>
      </trkpt>
      <trkpt lat="36.403090" lon="-119.002170">
        <ele>246.708</ele>
        <time>2018-12-28T19:45:00Z</time>
      </trkpt>
      <trkpt lat="36.402970" lon="-119.002500">
        <ele>239.647</ele>
        <time>2018-12-28T19:45:20Z</time>
      </trkpt>
      <trkpt lat="36.402810" lon="-119.002910">
        <ele>228.715</ele>
        <time>2018-12-28T19:45:40Z</time>
      </trkpt>
      <trkpt lat="36.402720" lon="-119.003150">
        <ele>224.030</ele>
        <time>2018-12-28T19:46:00Z</time>
      </trkpt>
      <trkpt lat="36.402660" lon="-119.003320">
        <ele>220.270</ele>
        <time>2018-12-28T19:46:20Z</time>
      </trkpt>
      <trkpt lat="36.402610" lon="-119.003480">
        <ele>216.584</ele>
        <time>2018-12-28T19:46:40Z</time>
      </trkpt>
      <trkpt lat="36.402530" lon="-119.003750">
        <ele>209.577</ele>
        <time>2018-12-28T19:47:00Z</time>
      </trkpt>
      <trkpt lat="36.402450" lon="-119.004030">
        <ele>202.658</ele>
        <time>2018-12-28T19:47:20Z</time>
      </trkpt>
      <trkpt lat="36.402390" lon="-119.004310">
        <ele>194.781</ele>
        <time>2018-12-28T19:47:40Z</time>
      </trkpt>
      <trkpt lat="36.402340" lon="-119.004560">
        <ele>196.217</ele>
        <time>2018-12-28T19:48:00Z</time>
      </trkpt>
      <trkpt lat="36.402320" lon="-119.004720">
        <ele>197.487</ele>
        <time>2018-12-28T19:48:20Z</time>
      </trkpt>
      <trkpt lat="36.402270" lon="-119.005010">
        <ele>200.115</ele>
        <time>2018-12-28T19:48:40Z</time>
      </trkpt>
      <trkpt lat="36.402240" lon="-119.005290">
        <ele>199.708</ele>
        <time>2018-12-28T19:49:00Z</time>
      </trkpt>
      <trkpt lat="36.402190" lon="-119.005760">
        <ele>200.144</ele>
        <time>2018-12-28T19:49:20Z</time>
      </trkpt>
      <trkpt lat="36.402160" lon="-119.006070">
        <ele>196.522</ele>
        <time>2018-12-28T19:49:40Z</time>
      </trkpt>
      <trkpt lat="36.402160" lon="-119.006190">
        <ele>193.557</ele>
        <time>2018-12-28T19:50:00Z</time>
      </trkpt>
      <trkpt lat="36.402150" lon="-119.006270">
        <ele>192.077</ele>
        <time>2018-12-28T19:50:20Z</time>
      </trkpt>
      <trkpt lat="36.402140" lon="-119.006670">
        <ele>183.641</ele>
        <time>2018-12-28T19:50:40Z</time>
      </trkpt>
      <trkpt lat="36.402120" lon="-119.007460">
        <ele>173.594</ele>
        <time>2018-12-28T19:51:00Z</time>
      </trkpt>
      <trkpt lat="36.402090" lon="-119.008430">
        <ele>176.335</ele>
        <time>2018-12-28T19:51:20Z</time>
      </trkpt>
      <trkpt lat="36.402050" lon="-119.009580">
        <ele>174.248</ele>
        <time>2018-12-28T19:51:40Z</time>
      </trkpt>
      <trkpt lat="36.402010" lon="-119.010860">
        <ele>169.158</ele>
        <time>2018-12-28T19:52:00Z</time>
      </trkpt>
      <trkpt lat="36.402000" lon="-119.011220">
        <ele>169.352</ele>
        <time>2018-12-28T19:52:20Z</time>
      </trkpt>
      <trkpt lat="36.401990" lon="-119.011560">
        <ele>170.117</ele>
        <time>2018-12-28T19:52:40Z</time>
      </trkpt>
      <trkpt lat="36.401980" lon="-119.011800">
        <ele>171.708</ele>
        <time>2018-12-28T19:53:00Z</time>
      </trkpt>
      <trkpt lat="36.401970" lon="-119.011990">
        <ele>173.538</ele>
        <time>2018-12-28T19:53:20Z</time>
      </trkpt>
      <trkpt lat="36.401960" lon="-119.012110">
        <ele>174.516</ele>
        <time>2018-12-28T19:53:40Z</time>
      </trkpt>
      <trkpt lat="36.401940" lon="-119.012240">
        <ele>174.861</ele>
        <time>2018-12-28T19:54:00Z</time>
      </trkpt>
      <trkpt lat="36.401930" lon="-119.012330">
        <ele>174.821</ele>
        <time>2018-12-28T19:54:20Z</time>
      </trkpt>
      <trkpt lat="36.401910" lon="-119.012460">
        <ele>173.815</ele>
        <time>2018-12-28T19:54:40Z</time>
      </trkpt>
      <trkpt lat="36.401880" lon="-119.012600">
        <ele>172.228</ele>
        <time>2018-12-28T19:55:00Z</time>
      </trkpt>
      <trkpt lat="36.401860" lon="-119.012690">
        <ele>171.389</ele>
        <time>2018-12-28T19:55:20Z</time>
      </trkpt>
      <trkpt lat="36.401830" lon="-119.012850">
        <ele>170.012</ele>
        <time>2018-12-28T19:55:40Z</time>
      </trkpt>
      <trkpt lat="36.401790" lon="-119.012980">
        <ele>169.055</ele>
        <time>2018-12-28T19:56:00Z</time>
      </trkpt>
      <trkpt lat="36.401760" lon="-119.013110">
        <ele>167.207</ele>
        <time>2018-12-28T19:56:20Z</time>
      </trkpt>
      <trkpt lat="36.401720" lon="-119.013240">
        <ele>165.517</ele>
        <time>2018-12-28T19:56:40Z</time>
      </trkpt>
      <trkpt lat="36.401680" lon="-119.013360">
        <ele>164.908</ele>
        <time>2018-12-28T19:57:00Z</time>
      </trkpt>
      <trkpt lat="36.401610" lon="-119.013550">
        <ele>163.998</ele>
        <time>2018-12-28T19:57:20Z</time>
      </trkpt>
      <trkpt lat="36.401560" lon="-119.013680">
        <ele>163.696</ele>
        <time>2018-12-28T19:57:40Z</time>
      </trkpt>
      <trkpt lat="36.401500" lon="-119.013820">
        <ele>163.381</ele>
        <time>2018-12-28T19:58:00Z</time>
      </trkpt>
      <trkpt lat="36.401440" lon="-119.013960">
        <ele>163.091</ele>
        <time>2018-12-28T19:58:20Z</time>
      </trkpt>
      <trkpt lat="36.401400" lon="-119.014050">
        <ele>162.865</ele>
        <time>2018-12-28T19:58:40Z</time>
      </trkpt>
      <trkpt lat="36.401350" lon="-119.014140">
        <ele>162.698</ele>
        <time>2018-12-28T19:59:00Z</time>
      </trkpt>
      <trkpt lat="36.401310" lon="-119.014230">
        <ele>162.399</ele>
        <time>2018-12-28T19:59:20Z</time>
      </trkpt>
      <trkpt lat="36.401270" lon="-119.014290">
        <ele>162.112</ele>
        <time>2018-12-28T19:59:40Z</time>
      </trkpt>
      <trkpt lat="36.401220" lon="-119.014380">
        <ele>161.837</ele>
        <time>2018-12-28T20:00:00Z</time>
      </trkpt>
      <trkpt lat="36.401160" lon="-119.014490">
        <ele>161.449</ele>
        <time>2018-12-28T20:00:20Z</time>
      </trkpt>
      <trkpt lat="36.401090" lon="-119.014610">
        <ele>160.913</ele>
        <time>2018-12-28T20:00:40Z</time>
      </trkpt>
      <trkpt lat="36.400880" lon="-119.014900">
        <ele>159.608</ele>
        <time>2018-12-28T20:01:00Z</time>
      </trkpt>
      <trkpt lat="36.400580" lon="-119.015310">
        <ele>159.266</ele>
        <time>2018-12-28T20:01:20Z</time>
      </trkpt>
      <trkpt lat="36.400290" lon="-119.015680">
        <ele>157.354</ele>
        <time>2018-12-28T20:01:40Z</time>
      </trkpt>
      <trkpt lat="36.399990" lon="-119.016070">
        <ele>156.589</ele>
        <time>2018-12-28T20:02:00Z</time>
      </trkpt>
      <trkpt lat="36.399600" lon="-119.016610">
        <ele>155.439</ele>
        <time>2018-12-28T20:02:20Z</time>
      </trkpt>
      <trkpt lat="36.399230" lon="-119.017100">
        <ele>154.523</ele>
        <time>2018-12-28T20:02:40Z</time>
      </trkpt>
      <trkpt lat="36.399010" lon="-119.017400">
        <ele>154.216</ele>
        <time>2018-12-28T20:03:00Z</time>
      </trkpt>
      <trkpt lat="36.398800" lon="-119.017680">
        <ele>153.837</ele>
        <time>2018-12-28T20:03:20Z</time>
      </trkpt>
      <trkpt lat="36.398540" lon="-119.018040">
        <ele>153.820</ele>
        <time>2018-12-28T20:03:40Z</time>
      </trkpt>
      <trkpt lat="36.398020" lon="-119.018730">
        <ele>153.984</ele>
        <time>2018-12-28T20:04:00Z</time>
      </trkpt>
      <trkpt lat="36.397360" lon="-119.019620">
        <ele>152.107</ele>
        <time>2018-12-28T20:04:20Z</time>
      </trkpt>
      <trkpt lat="36.397160" lon="-119.019890">
        <ele>151.817</ele>
        <time>2018-12-28T20:04:40Z</time>
      </trkpt>
      <trkpt lat="36.396870" lon="-119.020290">
        <ele>151.308</ele>
        <time>2018-12-28T20:05:00Z</time>
      </trkpt>
      <trkpt lat="36.396600" lon="-119.020630">
        <ele>151.291</ele>
        <time>2018-12-28T20:05:20Z</time>
      </trkpt>
      <trkpt lat="36.396400" lon="-119.020870">
        <ele>151.239</ele>
        <time>2018-12-28T20:05:40Z</time>
      </trkpt>
      <trkpt lat="36.396260" lon="-119.021010">
        <ele>151.184</ele>
        <time>2018-12-28T20:06:00Z</time>
      </trkpt>
      <trkpt lat="36.396250" lon="-119.021020">
        <ele>151.184</ele>
        <time>2018-12-28T20:06:20Z</time>
      </trkpt>
      <trkpt lat="36.396110" lon="-119.021140">
        <ele>151.158</ele>
        <time>2018-12-28T20:06:40Z</time>
      </trkpt>
      <trkpt lat="36.395980" lon="-119.021250">
        <ele>151.161</ele>
        <time>2018-12-28T20:07:00Z</time>
      </trkpt>
      <trkpt lat="36.395830" lon="-119.021380">
        <ele>151.252</ele>
        <time>2018-12-28T20:07:20Z</time>
      </trkpt>
      <trkpt lat="36.395730" lon="-119.021460">
        <ele>151.325</ele>
        <time>2018-12-28T20:07:40Z</time>
      </trkpt>
      <trkpt lat="36.395670" lon="-119.021510">
        <ele>151.436</ele>
        <time>2018-12-28T20:08:00Z</time>
      </trkpt>
      <trkpt lat="36.395550" lon="-119.021590">
        <ele>151.617</ele>
        <time>2018-12-28T20:08:20Z</time>
      </trkpt>
      <trkpt lat="36.395410" lon="-119.021680">
        <ele>152.018</ele>
        <time>2018-12-28T20:08:40Z</time>
      </trkpt>
      <trkpt lat="36.395220" lon="-119.021800">
        <ele>152.308</ele>
        <time>2018-12-28T20:09:00Z</time>
      </trkpt>
      <trkpt lat="36.394860" lon="-119.021960">
        <ele>152.876</ele>
        <time>2018-12-28T20:09:20Z</time>
      </trkpt>
      <trkpt lat="36.394770" lon="-119.022000">
        <ele>152.974</ele>
        <time>2018-12-28T20:09:40Z</time>
      </trkpt>
      <trkpt lat="36.394640" lon="-119.022060">
        <ele>153.139</ele>
        <time>2018-12-28T20:10:00Z</time>
      </trkpt>
      <trkpt lat="36.394510" lon="-119.022100">
        <ele>153.319</ele>
        <time>2018-12-28T20:10:20Z</time>
      </trkpt>
      <trkpt lat="36.394380" lon="-119.022150">
        <ele>153.773</ele>
        <time>2018-12-28T20:10:40Z</time>
      </trkpt>
      <trkpt lat="36.394300" lon="-119.022170">
        <ele>153.856</ele>
        <time>2018-12-28T20:11:00Z</time>
      </trkpt>
      <trkpt lat="36.394210" lon="-119.022190">
        <ele>154.127</ele>
        <time>2018-12-28T20:11:20Z</time>
      </trkpt>
      <trkpt lat="36.394130" lon="-119.022210">
        <ele>154.310</ele>
        <time>2018-12-28T20:11:40Z</time>
      </trkpt>
      <trkpt lat="36.394030" lon="-119.022230">
        <ele>154.628</ele>
        <time>2018-12-28T20:12:00Z</time>
      </trkpt>
      <trkpt lat="36.393870" lon="-119.022260">
        <ele>154.889</ele>
        <time>2018-12-28T20:12:20Z</time>
      </trkpt>
      <trkpt lat="36.393680" lon="-119.022290">
        <ele>155.117</ele>
        <time>2018-12-28T20:12:40Z</time>
      </trkpt>
      <trkpt lat="36.393620" lon="-119.022290">
        <ele>155.108</ele>
        <time>2018-12-28T20:13:00Z</time>
      </trkpt>
      <trkpt lat="36.393570" lon="-119.022300">
        <ele>155.215</ele>
        <time>2018-12-28T20:13:20Z</time>
      </trkpt>
      <trkpt lat="36.393520" lon="-119.022300">
        <ele>155.233</ele>
        <time>2018-12-28T20:13:40Z</time>
      </trkpt>
      <trkpt lat="36.393420" lon="-119.022310">
        <ele>155.328</ele>
        <time>2018-12-28T20:14:00Z</time>
      </trkpt>
      <trkpt lat="36.393300" lon="-119.022310">
        <ele>155.428</ele>
        <time>2018-12-28T20:14:20Z</time>
      </trkpt>
      <trkpt lat="36.393120" lon="-119.022300">
        <ele>155.522</ele>
        <time>2018-12-28T20:14:40Z</time>
      </trkpt>
      <trkpt lat="36.392920" lon="-119.022300">
        <ele>155.775</ele>
        <time>2018-12-28T20:15:00Z</time>
      </trkpt>
      <trkpt lat="36.390930" lon="-119.022230">
        <ele>156.746</ele>
        <time>2018-12-28T20:15:20Z</time>
      </trkpt>
      <trkpt lat="36.390040" lon="-119.022190">
        <ele>156.839</ele>
        <time>2018-12-28T20:15:40Z</time>
      </trkpt>
      <trkpt lat="36.389240" lon="-119.022170">
        <ele>156.377</ele>
        <time>2018-12-28T20:16:00Z</time>
      </trkpt>
      <trkpt lat="36.388320" lon="-119.022140">
        <ele>156.961</ele>
        <time>2018-12-28T20:16:20Z</time>
      </trkpt>
      <trkpt lat="36.388160" lon="-119.022130">
        <ele>157.027</ele>
        <time>2018-12-28T20:16:40Z</time>
      </trkpt>
      <trkpt lat="36.387940" lon="-119.022140">
        <ele>157.108</ele>
        <time>2018-12-28T20:17:00Z</time>
      </trkpt>
      <trkpt lat="36.387810" lon="-119.022150">
        <ele>157.340</ele>
        <time>2018-12-28T20:17:20Z</time>
      </trkpt>
      <trkpt lat="36.387680" lon="-119.022160">
        <ele>157.438</ele>
        <time>2018-12-28T20:17:40Z</time>
      </trkpt>
      <trkpt lat="36.387600" lon="-119.022180">
        <ele>157.533</ele>
        <time>2018-12-28T20:18:00Z</time>
      </trkpt>
      <trkpt lat="36.387540" lon="-119.022190">
        <ele>157.523</ele>
        <time>2018-12-28T20:18:20Z</time>
      </trkpt>
      <trkpt lat="36.387460" lon="-119.022210">
        <ele>157.617</ele>
        <time>2018-12-28T20:18:40Z</time>
      </trkpt>
      <trkpt lat="36.387410" lon="-119.022220">
        <ele>157.650</ele>
        <time>2018-12-28T20:19:00Z</time>
      </trkpt>
      <trkpt lat="36.387290" lon="-119.022270">
        <ele>157.761</ele>
        <time>2018-12-28T20:19:20Z</time>
      </trkpt>
      <trkpt lat="36.387190" lon="-119.022310">
        <ele>157.724</ele>
        <time>2018-12-28T20:19:40Z</time>
      </trkpt>
      <trkpt lat="36.387040" lon="-119.022390">
        <ele>157.716</ele>
        <time>2018-12-28T20:20:00Z</time>
      </trkpt>
      <trkpt lat="36.386970" lon="-119.022430">
        <ele>157.876</ele>
        <time>2018-12-28T20:20:20Z</time>
      </trkpt>
      <trkpt lat="36.386920" lon="-119.022470">
        <ele>157.813</ele>
        <time>2018-12-28T20:20:40Z</time>
      </trkpt>
      <trkpt lat="36.386870" lon="-119.022510">
        <ele>157.708</ele>
        <time>2018-12-28T20:21:00Z</time>
      </trkpt>
      <trkpt lat="36.386830" lon="-119.022540">
        <ele>157.754</ele>
        <time>2018-12-28T20:21:20Z</time>
      </trkpt>
      <trkpt lat="36.386780" lon="-119.022580">
        <ele>157.722</ele>
        <time>2018-12-28T20:21:40Z</time>
      </trkpt>
      <trkpt lat="36.386740" lon="-119.022630">
        <ele>157.737</ele>
        <time>2018-12-28T20:22:00Z</time>
      </trkpt>
      <trkpt lat="36.386660" lon="-119.022710">
        <ele>157.737</ele>
        <time>2018-12-28T20:22:20Z</time>
      </trkpt>
      <trkpt lat="36.386600" lon="-119.022780">
        <ele>157.711</ele>
        <time>2018-12-28T20:22:40Z</time>
      </trkpt>
      <trkpt lat="36.386540" lon="-119.022870">
        <ele>157.584</ele>
        <time>2018-12-28T20:23:00Z</time>
      </trkpt>
      <trkpt lat="36.386490" lon="-119.022970">
        <ele>157.335</ele>
        <time>2018-12-28T20:23:20Z</time>
      </trkpt>
      <trkpt lat="36.386440" lon="-119.023060">
        <ele>156.958</ele>
        <time>2018-12-28T20:23:40Z</time>
      </trkpt>
      <trkpt lat="36.386410" lon="-119.023120">
        <ele>156.785</ele>
        <time>2018-12-28T20:24:00Z</time>
      </trkpt>
      <trkpt lat="36.386380" lon="-119.023200">
        <ele>156.589</ele>
        <time>2018-12-28T20:24:20Z</time>
      </trkpt>
      <trkpt lat="36.386350" lon="-119.023290">
        <ele>156.417</ele>
        <time>2018-12-28T20:24:40Z</time>
      </trkpt>
      <trkpt lat="36.386320" lon="-119.023380">
        <ele>156.308</ele>
        <time>2018-12-28T20:25:00Z</time>
      </trkpt>
      <trkpt lat="36.386300" lon="-119.023460">
        <ele>156.241</ele>
        <time>2018-12-28T20:25:20Z</time>
      </trkpt>
      <trkpt lat="36.386280" lon="-119.023560">
        <ele>156.229</ele>
        <time>2018-12-28T20:25:40Z</time>
      </trkpt>
      <trkpt lat="36.386270" lon="-119.023650">
        <ele>156.224</ele>
        <time>2018-12-28T20:26:00Z</time>
      </trkpt>
      <trkpt lat="36.386260" lon="-119.023750">
        <ele>156.324</ele>
        <time>2018-12-28T20:26:20Z</time>
      </trkpt>
      <trkpt lat="36.386240" lon="-119.023950">
        <ele>156.688</ele>
        <time>2018-12-28T20:26:40Z</time>
      </trkpt>
      <trkpt lat="36.386230" lon="-119.024060">
        <ele>156.781</ele>
        <time>2018-12-28T20:27:00Z</time>
      </trkpt>
      <trkpt lat="36.386230" lon="-119.024130">
        <ele>156.682</ele>
        <time>2018-12-28T20:27:20Z</time>
      </trkpt>
      <trkpt lat="36.386220" lon="-119.024180">
        <ele>156.565</ele>
        <time>2018-12-28T20:27:40Z</time>
      </trkpt>
      <trkpt lat="36.386200" lon="-119.024240">
        <ele>156.572</ele>
        <time>2018-12-28T20:28:00Z</time>
      </trkpt>
      <trkpt lat="36.386190" lon="-119.024290">
        <ele>156.413</ele>
        <time>2018-12-28T20:28:20Z</time>
      </trkpt>
      <trkpt lat="36.386180" lon="-119.024340">
        <ele>156.414</ele>
        <time>2018-12-28T20:28:40Z</time>
      </trkpt>
      <trkpt lat="36.386160" lon="-119.024380">
        <ele>156.308</ele>
        <time>2018-12-28T20:29:00Z</time>
      </trkpt>
      <trkpt lat="36.386150" lon="-119.024410">
        <ele>156.320</ele>
        <time>2018-12-28T20:29:20Z</time>
      </trkpt>
      <trkpt lat="36.386130" lon="-119.024450">
        <ele>156.358</ele>
        <time>2018-12-28T20:29:40Z</time>
      </trkpt>
      <trkpt lat="36.386110" lon="-119.024480">
        <ele>156.363</ele>
        <time>2018-12-28T20:30:00Z</time>
      </trkpt>
      <trkpt lat="36.386090" lon="-119.024520">
        <ele>156.393</ele>
        <time>2018-12-28T20:30:20Z</time>
      </trkpt>
      <trkpt lat="36.386050" lon="-119.024580">
        <ele>156.377</ele>
        <time>2018-12-28T20:30:40Z</time>
      </trkpt>
      <trkpt lat="36.386030" lon="-119.024620">
        <ele>156.250</ele>
        <time>2018-12-28T20:31:00Z</time>
      </trkpt>
      <trkpt lat="36.385980" lon="-119.024680">
        <ele>156.291</ele>
        <time>2018-12-28T20:31:20Z</time>
      </trkpt>
      <trkpt lat="36.385940" lon="-119.024720">
        <ele>156.254</ele>
        <time>2018-12-28T20:31:40Z</time>
      </trkpt>
      <trkpt lat="36.385890" lon="-119.024780">
        <ele>156.224</ele>
        <time>2018-12-28T20:32:00Z</time>
      </trkpt>
      <trkpt lat="36.385850" lon="-119.024810">
        <ele>156.204</ele>
        <time>2018-12-28T20:32:20Z</time>
      </trkpt>
      <trkpt lat="36.385800" lon="-119.024850">
        <ele>156.214</ele>
        <time>2018-12-28T20:32:40Z</time>
      </trkpt>
      <trkpt lat="36.385700" lon="-119.024910">
        <ele>156.208</ele>
        <time>2018-12-28T20:33:00Z</time>
      </trkpt>
      <trkpt lat="36.385650" lon="-119.024930">
        <ele>156.345</ele>
        <time>2018-12-28T20:33:20Z</time>
      </trkpt>
      <trkpt lat="36.385620" lon="-119.024940">
        <ele>156.313</ele>
        <time>2018-12-28T20:33:40Z</time>
      </trkpt>
      <trkpt lat="36.385580" lon="-119.024950">
        <ele>156.368</ele>
        <time>2018-12-28T20:34:00Z</time>
      </trkpt>
      <trkpt lat="36.385550" lon="-119.024960">
        <ele>156.498</ele>
        <time>2018-12-28T20:34:20Z</time>
      </trkpt>
      <trkpt lat="36.385500" lon="-119.024970">
        <ele>156.452</ele>
        <time>2018-12-28T20:34:40Z</time>
      </trkpt>
      <trkpt lat="36.385450" lon="-119.024980">
        <ele>156.575</ele>
        <time>2018-12-28T20:35:00Z</time>
      </trkpt>
      <trkpt lat="36.385410" lon="-119.024980">
        <ele>156.526</ele>
        <time>2018-12-28T20:35:20Z</time>
      </trkpt>
      <trkpt lat="36.385350" lon="-119.024990">
        <ele>156.649</ele>
        <time>2018-12-28T20:35:40Z</time>
      </trkpt>
      <trkpt lat="36.385250" lon="-119.024980">
        <ele>156.644</ele>
        <time>2018-12-28T20:36:00Z</time>
      </trkpt>
      <trkpt lat="36.384050" lon="-119.024930">
        <ele>157.905</ele>
        <time>2018-12-28T20:36:20Z</time>
      </trkpt>
      <trkpt lat="36.383030" lon="-119.024880">
        <ele>158.015</ele>
        <time>2018-12-28T20:36:40Z</time>
      </trkpt>
      <trkpt lat="36.382790" lon="-119.024870">
        <ele>158.208</ele>
        <time>2018-12-28T20:37:00Z</time>
      </trkpt>
      <trkpt lat="36.382530" lon="-119.024860">
        <ele>158.387</ele>
        <time>2018-12-28T20:37:20Z</time>
      </trkpt>
      <trkpt lat="36.382390" lon="-119.024860">
        <ele>158.445</ele>
        <time>2018-12-28T20:37:40Z</time>
      </trkpt>
      <trkpt lat="36.382340" lon="-119.024860">
        <ele>158.410</ele>
        <time>2018-12-28T20:38:00Z</time>
      </trkpt>
      <trkpt lat="36.382290" lon="-119.024860">
        <ele>158.440</ele>
        <time>2018-12-28T20:38:20Z</time>
      </trkpt>
      <trkpt lat="36.382220" lon="-119.024870">
        <ele>158.544</ele>
        <time>2018-12-28T20:38:40Z</time>
      </trkpt>
      <trkpt lat="36.382180" lon="-119.024880">
        <ele>158.537</ele>
        <time>2018-12-28T20:39:00Z</time>
      </trkpt>
      <trkpt lat="36.382130" lon="-119.024890">
        <ele>158.518</ele>
        <time>2018-12-28T20:39:20Z</time>
      </trkpt>
      <trkpt lat="36.382050" lon="-119.024900">
        <ele>158.581</ele>
        <time>2018-12-28T20:39:40Z</time>
      </trkpt>
      <trkpt lat="36.381970" lon="-119.024930">
        <ele>158.699</ele>
        <time>2018-12-28T20:40:00Z</time>
      </trkpt>
      <trkpt lat="36.381910" lon="-119.024960">
        <ele>158.607</ele>
        <time>2018-12-28T20:40:20Z</time>
      </trkpt>
      <trkpt lat="36.381810" lon="-119.025000">
        <ele>158.627</ele>
        <time>2018-12-28T20:40:40Z</time>
      </trkpt>
      <trkpt lat="36.381720" lon="-119.025050">
        <ele>158.608</ele>
        <time>2018-12-28T20:41:00Z</time>
      </trkpt>
      <trkpt lat="36.381680" lon="-119.025080">
        <ele>158.692</ele>
        <time>2018-12-28T20:41:20Z</time>
      </trkpt>
      <trkpt lat="36.381630" lon="-119.025110">
        <ele>158.690</ele>
        <time>2018-12-28T20:41:40Z</time>
      </trkpt>
      <trkpt lat="36.381590" lon="-119.025140">
        <ele>158.655</ele>
        <time>2018-12-28T20:42:00Z</time>
      </trkpt>
      <trkpt lat="36.381500" lon="-119.025210">
        <ele>158.625</ele>
        <time>2018-12-28T20:42:20Z</time>
      </trkpt>
      <trkpt lat="36.381400" lon="-119.025300">
        <ele>158.689</ele>
        <time>2018-12-28T20:42:40Z</time>
      </trkpt>
      <trkpt lat="36.381320" lon="-119.025380">
        <ele>158.642</ele>
        <time>2018-12-28T20:43:00Z</time>
      </trkpt>
      <trkpt lat="36.381230" lon="-119.025480">
        <ele>158.633</ele>
        <time>2018-12-28T20:43:20Z</time>
      </trkpt>
      <trkpt lat="36.381170" lon="-119.025560">
        <ele>158.696</ele>
        <time>2018-12-28T20:43:40Z</time>
      </trkpt>
      <trkpt lat="36.381100" lon="-119.025660">
        <ele>158.554</ele>
        <time>2018-12-28T20:44:00Z</time>
      </trkpt>
      <trkpt lat="36.381000" lon="-119.025770">
        <ele>158.556</ele>
        <time>2018-12-28T20:44:20Z</time>
      </trkpt>
      <trkpt lat="36.380950" lon="-119.025820">
        <ele>158.511</ele>
        <time>2018-12-28T20:44:40Z</time>
      </trkpt>
      <trkpt lat="36.380920" lon="-119.025860">
        <ele>158.508</ele>
        <time>2018-12-28T20:45:00Z</time>
      </trkpt>
      <trkpt lat="36.380870" lon="-119.025910">
        <ele>158.558</ele>
        <time>2018-12-28T20:45:20Z</time>
      </trkpt>
      <trkpt lat="36.380810" lon="-119.025960">
        <ele>158.556</ele>
        <time>2018-12-28T20:45:40Z</time>
      </trkpt>
      <trkpt lat="36.380730" lon="-119.026020">
        <ele>158.421</ele>
        <time>2018-12-28T20:46:00Z</time>
      </trkpt>
      <trkpt lat="36.380660" lon="-119.026070">
        <ele>158.451</ele>
        <time>2018-12-28T20:46:20Z</time>
      </trkpt>
      <trkpt lat="36.380600" lon="-119.026110">
        <ele>158.465</ele>
        <time>2018-12-28T20:46:40Z</time>
      </trkpt>
      <trkpt lat="36.380560" lon="-119.026130">
        <ele>158.418</ele>
        <time>2018-12-28T20:47:00Z</time>
      </trkpt>
      <trkpt lat="36.380480" lon="-119.026170">
        <ele>158.439</ele>
        <time>2018-12-28T20:47:20Z</time>
      </trkpt>
      <trkpt lat="36.380450" lon="-119.026190">
        <ele>158.432</ele>
        <time>2018-12-28T20:47:40Z</time>
      </trkpt>
      <trkpt lat="36.380390" lon="-119.026220">
        <ele>158.421</ele>
        <time>2018-12-28T20:48:00Z</time>
      </trkpt>
      <trkpt lat="36.380340" lon="-119.026240">
        <ele>158.441</ele>
        <time>2018-12-28T20:48:20Z</time>
      </trkpt>
      <trkpt lat="36.380280" lon="-119.026260">
        <ele>158.405</ele>
        <time>2018-12-28T20:48:40Z</time>
      </trkpt>
      <trkpt lat="36.380200" lon="-119.026280">
        <ele>158.408</ele>
        <time>2018-12-28T20:49:00Z</time>
      </trkpt>
      <trkpt lat="36.380120" lon="-119.026300">
        <ele>158.425</ele>
        <time>2018-12-28T20:49:20Z</time>
      </trkpt>
      <trkpt lat="36.380090" lon="-119.026300">
        <ele>158.493</ele>
        <time>2018-12-28T20:49:40Z</time>
      </trkpt>
      <trkpt lat="36.380070" lon="-119.026310">
        <ele>158.438</ele>
        <time>2018-12-28T20:50:00Z</time>
      </trkpt>
      <trkpt lat="36.380040" lon="-119.026310">
        <ele>158.458</ele>
        <time>2018-12-28T20:50:20Z</time>
      </trkpt>
      <trkpt lat="36.379820" lon="-119.026320">
        <ele>158.472</ele>
        <time>2018-12-28T20:50:40Z</time>
      </trkpt>
      <trkpt lat="36.379700" lon="-119.026320">
        <ele>158.435</ele>
        <time>2018-12-28T20:51:00Z</time>
      </trkpt>
      <trkpt lat="36.378880" lon="-119.026330">
        <ele>158.666</ele>
        <time>2018-12-28T20:51:20Z</time>
      </trkpt>
      <trkpt lat="36.378620" lon="-119.026330">
        <ele>158.729</ele>
        <time>2018-12-28T20:51:40Z</time>
      </trkpt>
      <trkpt lat="36.378210" lon="-119.026340">
        <ele>158.812</ele>
        <time>2018-12-28T20:52:00Z</time>
      </trkpt>
      <trkpt lat="36.377770" lon="-119.026340">
        <ele>158.932</ele>
        <time>2018-12-28T20:52:20Z</time>
      </trkpt>
      <trkpt lat="36.377460" lon="-119.026350">
        <ele>159.005</ele>
        <time>2018-12-28T20:52:40Z</time>
      </trkpt>
      <trkpt lat="36.377290" lon="-119.026360">
        <ele>159.108</ele>
        <time>2018-12-28T20:53:00Z</time>
      </trkpt>
      <trkpt lat="36.377100" lon="-119.026380">
        <ele>159.244</ele>
        <time>2018-12-28T20:53:20Z</time>
      </trkpt>
      <trkpt lat="36.376860" lon="-119.026420">
        <ele>159.262</ele>
        <time>2018-12-28T20:53:40Z</time>
      </trkpt>
      <trkpt lat="36.376710" lon="-119.026450">
        <ele>159.227</ele>
        <time>2018-12-28T20:54:00Z</time>
      </trkpt>
      <trkpt lat="36.376570" lon="-119.026480">
        <ele>159.187</ele>
        <time>2018-12-28T20:54:20Z</time>
      </trkpt>
      <trkpt lat="36.376370" lon="-119.026540">
        <ele>159.061</ele>
        <time>2018-12-28T20:54:40Z</time>
      </trkpt>
      <trkpt lat="36.376200" lon="-119.026590">
        <ele>159.084</ele>
        <time>2018-12-28T20:55:00Z</time>
      </trkpt>
      <trkpt lat="36.376100" lon="-119.026630">
        <ele>158.965</ele>
        <time>2018-12-28T20:55:20Z</time>
      </trkpt>
      <trkpt lat="36.375920" lon="-119.026700">
        <ele>158.988</ele>
        <time>2018-12-28T20:55:40Z</time>
      </trkpt>
      <trkpt lat="36.375850" lon="-119.026730">
        <ele>158.871</ele>
        <time>2018-12-28T20:56:00Z</time>
      </trkpt>
      <trkpt lat="36.375810" lon="-119.026740">
        <ele>158.841</ele>
        <time>2018-12-28T20:56:20Z</time>
      </trkpt>
      <trkpt lat="36.375730" lon="-119.026780">
        <ele>158.715</ele>
        <time>2018-12-28T20:56:40Z</time>
      </trkpt>
      <trkpt lat="36.375530" lon="-119.026880">
        <ele>158.608</ele>
        <time>2018-12-28T20:57:00Z</time>
      </trkpt>
      <trkpt lat="36.375370" lon="-119.026960">
        <ele>158.540</ele>
        <time>2018-12-28T20:57:20Z</time>
      </trkpt>
      <trkpt lat="36.375210" lon="-119.027050">
        <ele>158.488</ele>
        <time>2018-12-28T20:57:40Z</time>
      </trkpt>
      <trkpt lat="36.375030" lon="-119.027170">
        <ele>158.253</ele>
        <time>2018-12-28T20:58:00Z</time>
      </trkpt>
      <trkpt lat="36.374870" lon="-119.027280">
        <ele>158.013</ele>
        <time>2018-12-28T20:58:20Z</time>
      </trkpt>
      <trkpt lat="36.374730" lon="-119.027380">
        <ele>157.997</ele>
        <time>2018-12-28T20:58:40Z</time>
      </trkpt>
      <trkpt lat="36.374540" lon="-119.027540">
        <ele>157.810</ele>
        <time>2018-12-28T20:59:00Z</time>
      </trkpt>
      <trkpt lat="36.374450" lon="-119.027610">
        <ele>157.841</ele>
        <time>2018-12-28T20:59:20Z</time>
      </trkpt>
      <trkpt lat="36.374200" lon="-119.027840">
        <ele>157.834</ele>
        <time>2018-12-28T20:59:40Z</time>
      </trkpt>
      <trkpt lat="36.373900" lon="-119.028130">
        <ele>158.139</ele>
        <time>2018-12-28T21:00:00Z</time>
      </trkpt>
      <trkpt lat="36.373580" lon="-119.028440">
        <ele>158.301</ele>
        <time>2018-12-28T21:00:20Z</time>
      </trkpt>
      <trkpt lat="36.372260" lon="-119.029710">
        <ele>158.121</ele>
        <time>2018-12-28T21:00:40Z</time>
      </trkpt>
      <trkpt lat="36.371840" lon="-119.030130">
        <ele>158.008</ele>
        <time>2018-12-28T21:01:00Z</time>
      </trkpt>
      <trkpt lat="36.371200" lon="-119.030730">
        <ele>158.216</ele>
        <time>2018-12-28T21:01:20Z</time>
      </trkpt>
      <trkpt lat="36.371020" lon="-119.030890">
        <ele>158.654</ele>
        <time>2018-12-28T21:01:40Z</time>
      </trkpt>
      <trkpt lat="36.370880" lon="-119.031020">
        <ele>159.449</ele>
        <time>2018-12-28T21:02:00Z</time>
      </trkpt>
      <trkpt lat="36.370670" lon="-119.031200">
        <ele>160.549</ele>
        <time>2018-12-28T21:02:20Z</time>
      </trkpt>
      <trkpt lat="36.370500" lon="-119.031340">
        <ele>161.693</ele>
        <time>2018-12-28T21:02:40Z</time>
      </trkpt>
      <trkpt lat="36.370130" lon="-119.031630">
        <ele>162.696</ele>
        <time>2018-12-28T21:03:00Z</time>
      </trkpt>
      <trkpt lat="36.369990" lon="-119.031740">
        <ele>162.477</ele>
        <time>2018-12-28T21:03:20Z</time>
      </trkpt>
      <trkpt lat="36.369700" lon="-119.031960">
        <ele>162.590</ele>
        <time>2018-12-28T21:03:40Z</time>
      </trkpt>
      <trkpt lat="36.369370" lon="-119.032180">
        <ele>164.581</ele>
        <time>2018-12-28T21:04:00Z</time>
      </trkpt>
      <trkpt lat="36.369070" lon="-119.032370">
        <ele>165.361</ele>
        <time>2018-12-28T21:04:20Z</time>
      </trkpt>
      <trkpt lat="36.366670" lon="-119.033850">
        <ele>171.017</ele>
        <time>2018-12-28T21:04:40Z</time>
      </trkpt>
      <trkpt lat="36.359780" lon="-119.038080">
        <ele>167.808</ele>
        <time>2018-12-28T21:05:00Z</time>
      </trkpt>
      <trkpt lat="36.359070" lon="-119.038520">
        <ele>167.621</ele>
        <time>2018-12-28T21:05:20Z</time>
      </trkpt>
      <trkpt lat="36.358480" lon="-119.038900">
        <ele>167.419</ele>
        <time>2018-12-28T21:05:40Z</time>
      </trkpt>
      <trkpt lat="36.358180" lon="-119.039110">
        <ele>167.094</ele>
        <time>2018-12-28T21:06:00Z</time>
      </trkpt>
      <trkpt lat="36.357700" lon="-119.039490">
        <ele>167.364</ele>
        <time>2018-12-28T21:06:20Z</time>
      </trkpt>
      <trkpt lat="36.357160" lon="-119.039930">
        <ele>167.078</ele>
        <time>2018-12-28T21:06:40Z</time>
      </trkpt>
      <trkpt lat="36.356030" lon="-119.040880">
        <ele>164.781</ele>
        <time>2018-12-28T21:07:00Z</time>
      </trkpt>
      <trkpt lat="36.354950" lon="-119.041790">
        <ele>163.822</ele>
        <time>2018-12-28T21:07:20Z</time>
      </trkpt>
      <trkpt lat="36.354720" lon="-119.042000">
        <ele>163.385</ele>
        <time>2018-12-28T21:07:40Z</time>
      </trkpt>
      <trkpt lat="36.354570" lon="-119.042150">
        <ele>163.266</ele>
        <time>2018-12-28T21:08:00Z</time>
      </trkpt>
      <trkpt lat="36.354440" lon="-119.042270">
        <ele>162.929</ele>
        <time>2018-12-28T21:08:20Z</time>
      </trkpt>
      <trkpt lat="36.354320" lon="-119.042400">
        <ele>162.821</ele>
        <time>2018-12-28T21:08:40Z</time>
      </trkpt>
      <trkpt lat="36.354210" lon="-119.042510">
        <ele>162.808</ele>
        <time>2018-12-28T21:09:00Z</time>
      </trkpt>
      <trkpt lat="36.354110" lon="-119.042620">
        <ele>162.739</ele>
        <time>2018-12-28T21:09:20Z</time>
      </trkpt>
      <trkpt lat="36.353950" lon="-119.042810">
        <ele>162.277</ele>
        <time>2018-12-28T21:09:40Z</time>
      </trkpt>
      <trkpt lat="36.353710" lon="-119.043120">
        <ele>161.092</ele>
        <time>2018-12-28T21:10:00Z</time>
      </trkpt>
      <trkpt lat="36.353590" lon="-119.043270">
        <ele>160.732</ele>
        <time>2018-12-28T21:10:20Z</time>
      </trkpt>
      <trkpt lat="36.353520" lon="-119.043380">
        <ele>160.586</ele>
        <time>2018-12-28T21:10:40Z</time>
      </trkpt>
      <trkpt lat="36.353380" lon="-119.043570">
        <ele>160.619</ele>
        <time>2018-12-28T21:11:00Z</time>
      </trkpt>
      <trkpt lat="36.353260" lon="-119.043750">
        <ele>161.160</ele>
        <time>2018-12-28T21:11:20Z</time>
      </trkpt>
      <trkpt lat="36.353180" lon="-119.043880">
        <ele>161.023</ele>
        <time>2018-12-28T21:11:40Z</time>
      </trkpt>
      <trkpt lat="36.353100" lon="-119.044010">
        <ele>161.747</ele>
        <time>2018-12-28T21:12:00Z</time>
      </trkpt>
      <trkpt lat="36.352940" lon="-119.044280">
        <ele>159.829</ele>
        <time>2018-12-28T21:12:20Z</time>
      </trkpt>
      <trkpt lat="36.352590" lon="-119.044900">
        <ele>158.321</ele>
        <time>2018-12-28T21:12:40Z</time>
      </trkpt>
      <trkpt lat="36.352380" lon="-119.045270">
        <ele>157.608</ele>
        <time>2018-12-28T21:13:00Z</time>
      </trkpt>
      <trkpt lat="36.351890" lon="-119.046130">
        <ele>157.077</ele>
        <time>2018-12-28T21:13:20Z</time>
      </trkpt>
      <trkpt lat="36.349990" lon="-119.049510">
        <ele>155.395</ele>
        <time>2018-12-28T21:13:40Z</time>
      </trkpt>
      <trkpt lat="36.348040" lon="-119.052970">
        <ele>152.470</ele>
        <time>2018-12-28T21:14:00Z</time>
      </trkpt>
      <trkpt lat="36.346810" lon="-119.055150">
        <ele>147.190</ele>
        <time>2018-12-28T21:14:20Z</time>
      </trkpt>
      <trkpt lat="36.345670" lon="-119.057180">
        <ele>145.554</ele>
        <time>2018-12-28T21:14:40Z</time>
      </trkpt>
      <trkpt lat="36.343690" lon="-119.060660">
        <ele>142.377</ele>
        <time>2018-12-28T21:15:00Z</time>
      </trkpt>
      <trkpt lat="36.342880" lon="-119.062100">
        <ele>141.148</ele>
        <time>2018-12-28T21:15:20Z</time>
      </trkpt>
      <trkpt lat="36.342090" lon="-119.063510">
        <ele>141.031</ele>
        <time>2018-12-28T21:15:40Z</time>
      </trkpt>
      <trkpt lat="36.341770" lon="-119.064110">
        <ele>141.166</ele>
        <time>2018-12-28T21:16:00Z</time>
      </trkpt>
      <trkpt lat="36.341620" lon="-119.064350">
        <ele>141.129</ele>
        <time>2018-12-28T21:16:20Z</time>
      </trkpt>
      <trkpt lat="36.341290" lon="-119.064870">
        <ele>141.121</ele>
        <time>2018-12-28T21:16:40Z</time>
      </trkpt>
      <trkpt lat="36.340950" lon="-119.065350">
        <ele>142.608</ele>
        <time>2018-12-28T21:17:00Z</time>
      </trkpt>
      <trkpt lat="36.340860" lon="-119.065470">
        <ele>143.729</ele>
        <time>2018-12-28T21:17:20Z</time>
      </trkpt>
      <trkpt lat="36.340760" lon="-119.065620">
        <ele>144.387</ele>
        <time>2018-12-28T21:17:40Z</time>
      </trkpt>
      <trkpt lat="36.340540" lon="-119.065900">
        <ele>146.882</ele>
        <time>2018-12-28T21:18:00Z</time>
      </trkpt>
      <trkpt lat="36.340350" lon="-119.066140">
        <ele>147.072</ele>
        <time>2018-12-28T21:18:20Z</time>
      </trkpt>
      <trkpt lat="36.340080" lon="-119.066440">
        <ele>146.526</ele>
        <time>2018-12-28T21:18:40Z</time>
      </trkpt>
      <trkpt lat="36.339770" lon="-119.066780">
        <ele>146.039</ele>
        <time>2018-12-28T21:19:00Z</time>
      </trkpt>
      <trkpt lat="36.339510" lon="-119.067040">
        <ele>146.130</ele>
        <time>2018-12-28T21:19:20Z</time>
      </trkpt>
      <trkpt lat="36.339260" lon="-119.067270">
        <ele>145.573</ele>
        <time>2018-12-28T21:19:40Z</time>
      </trkpt>
      <trkpt lat="36.338690" lon="-119.067780">
        <ele>143.611</ele>
        <time>2018-12-28T21:20:00Z</time>
      </trkpt>
      <trkpt lat="36.338320" lon="-119.068100">
        <ele>143.621</ele>
        <time>2018-12-28T21:20:20Z</time>
      </trkpt>
      <trkpt lat="36.337780" lon="-119.068550">
        <ele>143.703</ele>
        <time>2018-12-28T21:20:40Z</time>
      </trkpt>
      <trkpt lat="36.337470" lon="-119.068800">
        <ele>143.708</ele>
        <time>2018-12-28T21:21:00Z</time>
      </trkpt>
      <trkpt lat="36.337180" lon="-119.069030">
        <ele>143.724</ele>
        <time>2018-12-28T21:21:20Z</time>
      </trkpt>
      <trkpt lat="36.336540" lon="-119.069530">
        <ele>143.042</ele>
        <time>2018-12-28T21:21:40Z</time>
      </trkpt>
      <trkpt lat="36.335850" lon="-119.070070">
        <ele>142.927</ele>
        <time>2018-12-28T21:22:00Z</time>
      </trkpt>
      <trkpt lat="36.335650" lon="-119.070220">
        <ele>142.857</ele>
        <time>2018-12-28T21:22:20Z</time>
      </trkpt>
      <trkpt lat="36.335350" lon="-119.070430">
        <ele>142.741</ele>
        <time>2018-12-28T21:22:40Z</time>
      </trkpt>
      <trkpt lat="36.334770" lon="-119.070800">
        <ele>141.524</ele>
        <time>2018-12-28T21:23:00Z</time>
      </trkpt>
      <trkpt lat="36.333500" lon="-119.071580">
        <ele>139.695</ele>
        <time>2018-12-28T21:23:20Z</time>
      </trkpt>
      <trkpt lat="36.333250" lon="-119.071750">
        <ele>139.638</ele>
        <time>2018-12-28T21:23:40Z</time>
      </trkpt>
      <trkpt lat="36.332790" lon="-119.072030">
        <ele>140.272</ele>
        <time>2018-12-28T21:24:00Z</time>
      </trkpt>
      <trkpt lat="36.332480" lon="-119.072230">
        <ele>140.813</ele>
        <time>2018-12-28T21:24:20Z</time>
      </trkpt>
      <trkpt lat="36.332030" lon="-119.072540">
        <ele>141.114</ele>
        <time>2018-12-28T21:24:40Z</time>
      </trkpt>
      <trkpt lat="36.331720" lon="-119.072780">
        <ele>141.108</ele>
        <time>2018-12-28T21:25:00Z</time>
      </trkpt>
      <trkpt lat="36.331500" lon="-119.072960">
        <ele>141.270</ele>
        <time>2018-12-28T21:25:20Z</time>
      </trkpt>
      <trkpt lat="36.331240" lon="-119.073170">
        <ele>141.288</ele>
        <time>2018-12-28T21:25:40Z</time>
      </trkpt>
      <trkpt lat="36.330780" lon="-119.073560">
        <ele>141.333</ele>
        <time>2018-12-28T21:26:00Z</time>
      </trkpt>
      <trkpt lat="36.330350" lon="-119.073920">
        <ele>141.333</ele>
        <time>2018-12-28T21:26:20Z</time>
      </trkpt>
      <trkpt lat="36.329770" lon="-119.074400">
        <ele>141.517</ele>
        <time>2018-12-28T21:26:40Z</time>
      </trkpt>
      <trkpt lat="36.328830" lon="-119.075180">
        <ele>142.320</ele>
        <time>2018-12-28T21:27:00Z</time>
      </trkpt>
      <trkpt lat="36.328210" lon="-119.075690">
        <ele>142.581</ele>
        <time>2018-12-28T21:27:20Z</time>
      </trkpt>
      <trkpt lat="36.327500" lon="-119.076270">
        <ele>142.714</ele>
        <time>2018-12-28T21:27:40Z</time>
      </trkpt>
      <trkpt lat="36.327220" lon="-119.076510">
        <ele>142.851</ele>
        <time>2018-12-28T21:28:00Z</time>
      </trkpt>
      <trkpt lat="36.326980" lon="-119.076720">
        <ele>142.901</ele>
        <time>2018-12-28T21:28:20Z</time>
      </trkpt>
      <trkpt lat="36.326880" lon="-119.076830">
        <ele>142.911</ele>
        <time>2018-12-28T21:28:40Z</time>
      </trkpt>
      <trkpt lat="36.326750" lon="-119.076960">
        <ele>142.908</ele>
        <time>2018-12-28T21:29:00Z</time>
      </trkpt>
      <trkpt lat="36.326670" lon="-119.077050">
        <ele>142.878</ele>
        <time>2018-12-28T21:29:20Z</time>
      </trkpt>
      <trkpt lat="36.326570" lon="-119.077180">
        <ele>142.796</ele>
        <time>2018-12-28T21:29:40Z</time>
      </trkpt>
      <trkpt lat="36.326500" lon="-119.077280">
        <ele>142.711</ele>
        <time>2018-12-28T21:30:00Z</time>
      </trkpt>
      <trkpt lat="36.326460" lon="-119.077330">
        <ele>142.791</ele>
        <time>2018-12-28T21:30:20Z</time>
      </trkpt>
      <trkpt lat="36.326350" lon="-119.077480">
        <ele>142.655</ele>
        <time>2018-12-28T21:30:40Z</time>
      </trkpt>
      <trkpt lat="36.326260" lon="-119.077630">
        <ele>142.618</ele>
        <time>2018-12-28T21:31:00Z</time>
      </trkpt>
      <trkpt lat="36.326160" lon="-119.077790">
        <ele>142.559</ele>
        <time>2018-12-28T21:31:20Z</time>
      </trkpt>
      <trkpt lat="36.326050" lon="-119.078010">
        <ele>142.472</ele>
        <time>2018-12-28T21:31:40Z</time>
      </trkpt>
      <trkpt lat="36.325960" lon="-119.078180">
        <ele>142.275</ele>
        <time>2018-12-28T21:32:00Z</time>
      </trkpt>
      <trkpt lat="36.325910" lon="-119.078300">
        <ele>142.228</ele>
        <time>2018-12-28T21:32:20Z</time>
      </trkpt>
      <trkpt lat="36.325840" lon="-119.078460">
        <ele>142.120</ele>
        <time>2018-12-28T21:32:40Z</time>
      </trkpt>
      <trkpt lat="36.325720" lon="-119.078780">
        <ele>141.908</ele>
        <time>2018-12-28T21:33:00Z</time>
      </trkpt>
      <trkpt lat="36.325610" lon="-119.079130">
        <ele>141.570</ele>
        <time>2018-12-28T21:33:20Z</time>
      </trkpt>
      <trkpt lat="36.325560" lon="-119.079360">
        <ele>141.368</ele>
        <time>2018-12-28T21:33:40Z</time>
      </trkpt>
      <trkpt lat="36.325540" lon="-119.079470">
        <ele>141.273</ele>
        <time>2018-12-28T21:34:00Z</time>
      </trkpt>
      <trkpt lat="36.325510" lon="-119.079620">
        <ele>141.043</ele>
        <time>2018-12-28T21:34:20Z</time>
      </trkpt>
      <trkpt lat="36.325470" lon="-119.079840">
        <ele>140.847</ele>
        <time>2018-12-28T21:34:40Z</time>
      </trkpt>
      <trkpt lat="36.325450" lon="-119.079980">
        <ele>140.910</ele>
        <time>2018-12-28T21:35:00Z</time>
      </trkpt>
      <trkpt lat="36.325440" lon="-119.080130">
        <ele>140.921</ele>
        <time>2018-12-28T21:35:20Z</time>
      </trkpt>
      <trkpt lat="36.325420" lon="-119.080370">
        <ele>141.044</ele>
        <time>2018-12-28T21:35:40Z</time>
      </trkpt>
      <trkpt lat="36.325420" lon="-119.080520">
        <ele>141.067</ele>
        <time>2018-12-28T21:36:00Z</time>
      </trkpt>
      <trkpt lat="36.325410" lon="-119.080720">
        <ele>141.081</ele>
        <time>2018-12-28T21:36:20Z</time>
      </trkpt>
      <trkpt lat="36.325420" lon="-119.081190">
        <ele>141.019</ele>
        <time>2018-12-28T21:36:40Z</time>
      </trkpt>
      <trkpt lat="36.325430" lon="-119.082280">
        <ele>141.008</ele>
        <time>2018-12-28T21:37:00Z</time>
      </trkpt>
      <trkpt lat="36.325440" lon="-119.083100">
        <ele>141.079</ele>
        <time>2018-12-28T21:37:20Z</time>
      </trkpt>
      <trkpt lat="36.325450" lon="-119.083620">
        <ele>140.727</ele>
        <time>2018-12-28T21:37:40Z</time>
      </trkpt>
      <trkpt lat="36.325460" lon="-119.084300">
        <ele>139.912</ele>
        <time>2018-12-28T21:38:00Z</time>
      </trkpt>
      <trkpt lat="36.325480" lon="-119.085340">
        <ele>139.612</ele>
        <time>2018-12-28T21:38:20Z</time>
      </trkpt>
      <trkpt lat="36.325490" lon="-119.086380">
        <ele>139.526</ele>
        <time>2018-12-28T21:38:40Z</time>
      </trkpt>
      <trkpt lat="36.325500" lon="-119.087800">
        <ele>138.719</ele>
        <time>2018-12-28T21:39:00Z</time>
      </trkpt>
      <trkpt lat="36.325550" lon="-119.091210">
        <ele>138.020</ele>
        <time>2018-12-28T21:39:20Z</time>
      </trkpt>
      <trkpt lat="36.325620" lon="-119.096750">
        <ele>136.423</ele>
        <time>2018-12-28T21:39:40Z</time>
      </trkpt>
      <trkpt lat="36.325640" lon="-119.099280">
        <ele>136.141</ele>
        <time>2018-12-28T21:40:00Z</time>
      </trkpt>
      <trkpt lat="36.325690" lon="-119.103510">
        <ele>134.381</ele>
        <time>2018-12-28T21:40:20Z</time>
      </trkpt>
      <trkpt lat="36.325700" lon="-119.103870">
        <ele>134.309</ele>
        <time>2018-12-28T21:40:40Z</time>
      </trkpt>
      <trkpt lat="36.325700" lon="-119.104210">
        <ele>134.208</ele>
        <time>2018-12-28T21:41:00Z</time>
      </trkpt>
      <trkpt lat="36.325710" lon="-119.104810">
        <ele>134.157</ele>
        <time>2018-12-28T21:41:20Z</time>
      </trkpt>
      <trkpt lat="36.325730" lon="-119.105220">
        <ele>134.075</ele>
        <time>2018-12-28T21:41:40Z</time>
      </trkpt>
      <trkpt lat="36.325730" lon="-119.105470">
        <ele>134.080</ele>
        <time>2018-12-28T21:42:00Z</time>
      </trkpt>
      <trkpt lat="36.325750" lon="-119.105810">
        <ele>133.970</ele>
        <time>2018-12-28T21:42:20Z</time>
      </trkpt>
      <trkpt lat="36.325760" lon="-119.106040">
        <ele>133.964</ele>
        <time>2018-12-28T21:42:40Z</time>
      </trkpt>
      <trkpt lat="36.325770" lon="-119.106320">
        <ele>133.867</ele>
        <time>2018-12-28T21:43:00Z</time>
      </trkpt>
      <trkpt lat="36.325780" lon="-119.106780">
        <ele>133.888</ele>
        <time>2018-12-28T21:43:20Z</time>
      </trkpt>
      <trkpt lat="36.325800" lon="-119.107990">
        <ele>133.511</ele>
        <time>2018-12-28T21:43:40Z</time>
      </trkpt>
      <trkpt lat="36.325820" lon="-119.111360">
        <ele>132.071</ele>
        <time>2018-12-28T21:44:00Z</time>
      </trkpt>
      <trkpt lat="36.325840" lon="-119.112350">
        <ele>131.641</ele>
        <time>2018-12-28T21:44:20Z</time>
      </trkpt>
      <trkpt lat="36.325840" lon="-119.113420">
        <ele>131.315</ele>
        <time>2018-12-28T21:44:40Z</time>
      </trkpt>
      <trkpt lat="36.325830" lon="-119.114060">
        <ele>131.008</ele>
        <time>2018-12-28T21:45:00Z</time>
      </trkpt>
      <trkpt lat="36.325850" lon="-119.114240">
        <ele>131.040</ele>
        <time>2018-12-28T21:45:20Z</time>
      </trkpt>
      <trkpt lat="36.325850" lon="-119.114320">
        <ele>130.968</ele>
        <time>2018-12-28T21:45:40Z</time>
      </trkpt>
      <trkpt lat="36.325860" lon="-119.114620">
        <ele>130.863</ele>
        <time>2018-12-28T21:46:00Z</time>
      </trkpt>
      <trkpt lat="36.325860" lon="-119.115230">
        <ele>130.653</ele>
        <time>2018-12-28T21:46:20Z</time>
      </trkpt>
      <trkpt lat="36.325870" lon="-119.116160">
        <ele>130.397</ele>
        <time>2018-12-28T21:46:40Z</time>
      </trkpt>
      <trkpt lat="36.325890" lon="-119.116960">
        <ele>130.070</ele>
        <time>2018-12-28T21:47:00Z</time>
      </trkpt>
      <trkpt lat="36.325886" lon="-119.116963">
        <ele>130.061</ele>
        <time>2018-12-28T21:47:20Z</time>
      </trkpt>
      <trkpt lat="36.325730" lon="-119.116960">
        <ele>130.034</ele>
        <time>2018-12-28T21:47:40Z</time>
      </trkpt>
      <trkpt lat="36.325430" lon="-119.116970">
        <ele>130.038</ele>
        <time>2018-12-28T21:48:00Z</time>
      </trkpt>
      <trkpt lat="36.320240" lon="-119.117090">
        <ele>129.070</ele>
        <time>2018-12-28T21:48:20Z</time>
      </trkpt>
      <trkpt lat="36.319680" lon="-119.117100">
        <ele>128.817</ele>
        <time>2018-12-28T21:48:40Z</time>
      </trkpt>
      <trkpt lat="36.318190" lon="-119.117130">
        <ele>128.808</ele>
        <time>2018-12-28T21:49:00Z</time>
      </trkpt>
      <trkpt lat="36.317100" lon="-119.117160">
        <ele>128.726</ele>
        <time>2018-12-28T21:49:20Z</time>
      </trkpt>
      <trkpt lat="36.314850" lon="-119.117210">
        <ele>128.184</ele>
        <time>2018-12-28T21:49:40Z</time>
      </trkpt>
      <trkpt lat="36.314750" lon="-119.117210">
        <ele>128.189</ele>
        <time>2018-12-28T21:50:00Z</time>
      </trkpt>
      <trkpt lat="36.313550" lon="-119.117220">
        <ele>127.989</ele>
        <time>2018-12-28T21:50:20Z</time>
      </trkpt>
      <trkpt lat="36.313010" lon="-119.117210">
        <ele>128.043</ele>
        <time>2018-12-28T21:50:40Z</time>
      </trkpt>
      <trkpt lat="36.312210" lon="-119.117200">
        <ele>128.146</ele>
        <time>2018-12-28T21:51:00Z</time>
      </trkpt>
      <trkpt lat="36.311830" lon="-119.117190">
        <ele>128.337</ele>
        <time>2018-12-28T21:51:20Z</time>
      </trkpt>
      <trkpt lat="36.311380" lon="-119.117200">
        <ele>128.310</ele>
        <time>2018-12-28T21:51:40Z</time>
      </trkpt>
      <trkpt lat="36.310740" lon="-119.117210">
        <ele>127.835</ele>
        <time>2018-12-28T21:52:00Z</time>
      </trkpt>
      <trkpt lat="36.309950" lon="-119.117250">
        <ele>127.386</ele>
        <time>2018-12-28T21:52:20Z</time>
      </trkpt>
      <trkpt lat="36.308290" lon="-119.117270">
        <ele>127.014</ele>
        <time>2018-12-28T21:52:40Z</time>
      </trkpt>
      <trkpt lat="36.307460" lon="-119.117310">
        <ele>126.808</ele>
        <time>2018-12-28T21:53:00Z</time>
      </trkpt>
      <trkpt lat="36.306900" lon="-119.117350">
        <ele>126.636</ele>
        <time>2018-12-28T21:53:20Z</time>
      </trkpt>
      <trkpt lat="36.305310" lon="-119.117430">
        <ele>126.194</ele>
        <time>2018-12-28T21:53:40Z</time>
      </trkpt>
      <trkpt lat="36.304640" lon="-119.117480">
        <ele>125.819</ele>
        <time>2018-12-28T21:54:00Z</time>
      </trkpt>
      <trkpt lat="36.304150" lon="-119.117500">
        <ele>125.789</ele>
        <time>2018-12-28T21:54:20Z</time>
      </trkpt>
      <trkpt lat="36.303720" lon="-119.117520">
        <ele>125.513</ele>
        <time>2018-12-28T21:54:40Z</time>
      </trkpt>
      <trkpt lat="36.301900" lon="-119.117560">
        <ele>124.986</ele>
        <time>2018-12-28T21:55:00Z</time>
      </trkpt>
      <trkpt lat="36.301430" lon="-119.117570">
        <ele>124.737</ele>
        <time>2018-12-28T21:55:20Z</time>
      </trkpt>
      <trkpt lat="36.300990" lon="-119.117580">
        <ele>124.650</ele>
        <time>2018-12-28T21:55:40Z</time>
      </trkpt>
      <trkpt lat="36.300530" lon="-119.117570">
        <ele>124.665</ele>
        <time>2018-12-28T21:56:00Z</time>
      </trkpt>
      <trkpt lat="36.300090" lon="-119.117560">
        <ele>124.568</ele>
        <time>2018-12-28T21:56:20Z</time>
      </trkpt>
      <trkpt lat="36.299770" lon="-119.117560">
        <ele>124.514</ele>
        <time>2018-12-28T21:56:40Z</time>
      </trkpt>
      <trkpt lat="36.299390" lon="-119.117550">
        <ele>124.508</ele>
        <time>2018-12-28T21:57:00Z</time>
      </trkpt>
      <trkpt lat="36.299190" lon="-119.117540">
        <ele>124.469</ele>
        <time>2018-12-28T21:57:20Z</time>
      </trkpt>
      <trkpt lat="36.298910" lon="-119.117530">
        <ele>124.347</ele>
        <time>2018-12-28T21:57:40Z</time>
      </trkpt>
      <trkpt lat="36.298630" lon="-119.117520">
        <ele>124.242</ele>
        <time>2018-12-28T21:58:00Z</time>
      </trkpt>
      <trkpt lat="36.298440" lon="-119.117520">
        <ele>124.282</ele>
        <time>2018-12-28T21:58:20Z</time>
      </trkpt>
      <trkpt lat="36.298200" lon="-119.117520">
        <ele>124.126</ele>
        <time>2018-12-28T21:58:40Z</time>
      </trkpt>
      <trkpt lat="36.298000" lon="-119.117520">
        <ele>124.099</ele>
        <time>2018-12-28T21:59:00Z</time>
      </trkpt>
      <trkpt lat="36.297640" lon="-119.117530">
        <ele>124.070</ele>
        <time>2018-12-28T21:59:20Z</time>
      </trkpt>
      <trkpt lat="36.297370" lon="-119.117520">
        <ele>123.923</ele>
        <time>2018-12-28T21:59:40Z</time>
      </trkpt>
      <trkpt lat="36.296890" lon="-119.117530">
        <ele>123.875</ele>
        <time>2018-12-28T22:00:00Z</time>
      </trkpt>
      <trkpt lat="36.296670" lon="-119.117530">
        <ele>123.728</ele>
        <time>2018-12-28T22:00:20Z</time>
      </trkpt>
      <trkpt lat="36.296430" lon="-119.117530">
        <ele>123.720</ele>
        <time>2018-12-28T22:00:40Z</time>
      </trkpt>
      <trkpt lat="36.296210" lon="-119.117540">
        <ele>123.608</ele>
        <time>2018-12-28T22:01:00Z</time>
      </trkpt>
      <trkpt lat="36.294380" lon="-119.117580">
        <ele>123.270</ele>
        <time>2018-12-28T22:01:20Z</time>
      </trkpt>
      <trkpt lat="36.293670" lon="-119.117590">
        <ele>123.018</ele>
        <time>2018-12-28T22:01:40Z</time>
      </trkpt>
      <trkpt lat="36.293140" lon="-119.117610">
        <ele>122.833</ele>
        <time>2018-12-28T22:02:00Z</time>
      </trkpt>
      <trkpt lat="36.292740" lon="-119.117620">
        <ele>122.893</ele>
        <time>2018-12-28T22:02:20Z</time>
      </trkpt>
      <trkpt lat="36.292220" lon="-119.117650">
        <ele>122.747</ele>
        <time>2018-12-28T22:02:40Z</time>
      </trkpt>
      <trkpt lat="36.291550" lon="-119.117680">
        <ele>122.790</ele>
        <time>2018-12-28T22:03:00Z</time>
      </trkpt>
      <trkpt lat="36.290890" lon="-119.117710">
        <ele>122.721</ele>
        <time>2018-12-28T22:03:20Z</time>
      </trkpt>
      <trkpt lat="36.290320" lon="-119.117730">
        <ele>122.364</ele>
        <time>2018-12-28T22:03:40Z</time>
      </trkpt>
      <trkpt lat="36.289670" lon="-119.117760">
        <ele>122.079</ele>
        <time>2018-12-28T22:04:00Z</time>
      </trkpt>
      <trkpt lat="36.289170" lon="-119.117790">
        <ele>121.805</ele>
        <time>2018-12-28T22:04:20Z</time>
      </trkpt>
      <trkpt lat="36.289010" lon="-119.117800">
        <ele>121.825</ele>
        <time>2018-12-28T22:04:40Z</time>
      </trkpt>
      <trkpt lat="36.288710" lon="-119.117820">
        <ele>121.708</ele>
        <time>2018-12-28T22:05:00Z</time>
      </trkpt>
      <trkpt lat="36.288180" lon="-119.117850">
        <ele>121.590</ele>
        <time>2018-12-28T22:05:20Z</time>
      </trkpt>
      <trkpt lat="36.288000" lon="-119.117860">
        <ele>121.448</ele>
        <time>2018-12-28T22:05:40Z</time>
      </trkpt>
      <trkpt lat="36.287820" lon="-119.117870">
        <ele>121.433</ele>
        <time>2018-12-28T22:06:00Z</time>
      </trkpt>
      <trkpt lat="36.287630" lon="-119.117870">
        <ele>121.393</ele>
        <time>2018-12-28T22:06:20Z</time>
      </trkpt>
      <trkpt lat="36.287430" lon="-119.117870">
        <ele>121.317</ele>
        <time>2018-12-28T22:06:40Z</time>
      </trkpt>
      <trkpt lat="36.286850" lon="-119.117860">
        <ele>121.040</ele>
        <time>2018-12-28T22:07:00Z</time>
      </trkpt>
      <trkpt lat="36.286550" lon="-119.117850">
        <ele>120.911</ele>
        <time>2018-12-28T22:07:20Z</time>
      </trkpt>
      <trkpt lat="36.285460" lon="-119.117860">
        <ele>120.524</ele>
        <time>2018-12-28T22:07:40Z</time>
      </trkpt>
      <trkpt lat="36.284150" lon="-119.117890">
        <ele>119.898</ele>
        <time>2018-12-28T22:08:00Z</time>
      </trkpt>
      <trkpt lat="36.275130" lon="-119.118060">
        <ele>116.315</ele>
        <time>2018-12-28T22:08:20Z</time>
      </trkpt>
      <trkpt lat="36.274820" lon="-119.118070">
        <ele>116.126</ele>
        <time>2018-12-28T22:08:40Z</time>
      </trkpt>
      <trkpt lat="36.272000" lon="-119.118120">
        <ele>115.008</ele>
        <time>2018-12-28T22:09:00Z</time>
      </trkpt>
      <trkpt lat="36.269760" lon="-119.118150">
        <ele>113.992</ele>
        <time>2018-12-28T22:09:20Z</time>
      </trkpt>
      <trkpt lat="36.269040" lon="-119.118170">
        <ele>113.660</ele>
        <time>2018-12-28T22:09:40Z</time>
      </trkpt>
      <trkpt lat="36.268720" lon="-119.118180">
        <ele>113.625</ele>
        <time>2018-12-28T22:10:00Z</time>
      </trkpt>
      <trkpt lat="36.268460" lon="-119.118180">
        <ele>113.685</ele>
        <time>2018-12-28T22:10:20Z</time>
      </trkpt>
      <trkpt lat="36.268462" lon="-119.118180">
        <ele>113.699</ele>
        <time>2018-12-28T22:10:40Z</time>
      </trkpt>
      <trkpt lat="36.268220" lon="-119.118180">
        <ele>113.672</ele>
        <time>2018-12-28T22:11:00Z</time>
      </trkpt>
      <trkpt lat="36.267910" lon="-119.118180">
        <ele>113.643</ele>
        <time>2018-12-28T22:11:20Z</time>
      </trkpt>
      <trkpt lat="36.266560" lon="-119.118210">
        <ele>113.226</ele>
        <time>2018-12-28T22:11:40Z</time>
      </trkpt>
      <trkpt lat="36.265350" lon="-119.118220">
        <ele>112.683</ele>
        <time>2018-12-28T22:12:00Z</time>
      </trkpt>
      <trkpt lat="36.264620" lon="-119.118230">
        <ele>112.325</ele>
        <time>2018-12-28T22:12:20Z</time>
      </trkpt>
      <trkpt lat="36.264290" lon="-119.118230">
        <ele>112.217</ele>
        <time>2018-12-28T22:12:40Z</time>
      </trkpt>
      <trkpt lat="36.260650" lon="-119.118280">
        <ele>111.108</ele>
        <time>2018-12-28T22:13:00Z</time>
      </trkpt>
      <trkpt lat="36.257040" lon="-119.118330">
        <ele>110.151</ele>
        <time>2018-12-28T22:13:20Z</time>
      </trkpt>
      <trkpt lat="36.256990" lon="-119.118320">
        <ele>110.059</ele>
        <time>2018-12-28T22:13:40Z</time>
      </trkpt>
      <trkpt lat="36.253430" lon="-119.118350">
        <ele>108.734</ele>
        <time>2018-12-28T22:14:00Z</time>
      </trkpt>
      <trkpt lat="36.251460" lon="-119.118380">
        <ele>108.994</ele>
        <time>2018-12-28T22:14:20Z</time>
      </trkpt>
      <trkpt lat="36.250830" lon="-119.118390">
        <ele>108.338</ele>
        <time>2018-12-28T22:14:40Z</time>
      </trkpt>
      <trkpt lat="36.250300" lon="-119.118370">
        <ele>107.831</ele>
        <time>2018-12-28T22:15:00Z</time>
      </trkpt>
      <trkpt lat="36.249960" lon="-119.118380">
        <ele>107.762</ele>
        <time>2018-12-28T22:15:20Z</time>
      </trkpt>
      <trkpt lat="36.249090" lon="-119.118390">
        <ele>107.555</ele>
        <time>2018-12-28T22:15:40Z</time>
      </trkpt>
      <trkpt lat="36.248320" lon="-119.118390">
        <ele>107.398</ele>
        <time>2018-12-28T22:16:00Z</time>
      </trkpt>
      <trkpt lat="36.246100" lon="-119.118400">
        <ele>106.915</ele>
        <time>2018-12-28T22:16:20Z</time>
      </trkpt>
      <trkpt lat="36.244830" lon="-119.118410">
        <ele>106.526</ele>
        <time>2018-12-28T22:16:40Z</time>
      </trkpt>
      <trkpt lat="36.242300" lon="-119.118420">
        <ele>106.108</ele>
        <time>2018-12-28T22:17:00Z</time>
      </trkpt>
      <trkpt lat="36.231590" lon="-119.118480">
        <ele>107.732</ele>
        <time>2018-12-28T22:17:20Z</time>
      </trkpt>
      <trkpt lat="36.227970" lon="-119.118510">
        <ele>107.970</ele>
        <time>2018-12-28T22:17:40Z</time>
      </trkpt>
      <trkpt lat="36.226170" lon="-119.118530">
        <ele>108.115</ele>
        <time>2018-12-28T22:18:00Z</time>
      </trkpt>
      <trkpt lat="36.224360" lon="-119.118520">
        <ele>108.385</ele>
        <time>2018-12-28T22:18:20Z</time>
      </trkpt>
      <trkpt lat="36.222760" lon="-119.118490">
        <ele>108.459</ele>
        <time>2018-12-28T22:18:40Z</time>
      </trkpt>
      <trkpt lat="36.219610" lon="-119.118420">
        <ele>108.622</ele>
        <time>2018-12-28T22:19:00Z</time>
      </trkpt>
      <trkpt lat="36.219160" lon="-119.118410">
        <ele>108.793</ele>
        <time>2018-12-28T22:19:20Z</time>
      </trkpt>
      <trkpt lat="36.218620" lon="-119.118390">
        <ele>108.736</ele>
        <time>2018-12-28T22:19:40Z</time>
      </trkpt>
      <trkpt lat="36.218540" lon="-119.118390">
        <ele>108.783</ele>
        <time>2018-12-28T22:20:00Z</time>
      </trkpt>
      <trkpt lat="36.218370" lon="-119.118380">
        <ele>108.825</ele>
        <time>2018-12-28T22:20:20Z</time>
      </trkpt>
      <trkpt lat="36.218200" lon="-119.118360">
        <ele>108.817</ele>
        <time>2018-12-28T22:20:40Z</time>
      </trkpt>
      <trkpt lat="36.217990" lon="-119.118330">
        <ele>108.808</ele>
        <time>2018-12-28T22:21:00Z</time>
      </trkpt>
      <trkpt lat="36.217860" lon="-119.118310">
        <ele>108.841</ele>
        <time>2018-12-28T22:21:20Z</time>
      </trkpt>
      <trkpt lat="36.217780" lon="-119.118310">
        <ele>108.939</ele>
        <time>2018-12-28T22:21:40Z</time>
      </trkpt>
      <trkpt lat="36.217640" lon="-119.118300">
        <ele>108.974</ele>
        <time>2018-12-28T22:22:00Z</time>
      </trkpt>
      <trkpt lat="36.216520" lon="-119.118260">
        <ele>109.034</ele>
        <time>2018-12-28T22:22:20Z</time>
      </trkpt>
      <trkpt lat="36.214570" lon="-119.118220">
        <ele>109.228</ele>
        <time>2018-12-28T22:22:40Z</time>
      </trkpt>
      <trkpt lat="36.213370" lon="-119.118190">
        <ele>109.381</ele>
        <time>2018-12-28T22:23:00Z</time>
      </trkpt>
      <trkpt lat="36.211460" lon="-119.118150">
        <ele>109.582</ele>
        <time>2018-12-28T22:23:20Z</time>
      </trkpt>
      <trkpt lat="36.210960" lon="-119.118140">
        <ele>109.575</ele>
        <time>2018-12-28T22:23:40Z</time>
      </trkpt>
      <trkpt lat="36.210800" lon="-119.118140">
        <ele>109.624</ele>
        <time>2018-12-28T22:24:00Z</time>
      </trkpt>
      <trkpt lat="36.210798" lon="-119.118137">
        <ele>109.604</ele>
        <time>2018-12-28T22:24:20Z</time>
      </trkpt>
      <trkpt lat="36.210740" lon="-119.118140">
        <ele>109.614</ele>
        <time>2018-12-28T22:24:40Z</time>
      </trkpt>
      <trkpt lat="36.210710" lon="-119.116340">
        <ele>110.208</ele>
        <time>2018-12-28T22:25:00Z</time>
      </trkpt>
      <trkpt lat="36.210700" lon="-119.116020">
        <ele>110.235</ele>
        <time>2018-12-28T22:25:20Z</time>
      </trkpt>
      <trkpt lat="36.210680" lon="-119.114840">
        <ele>110.453</ele>
        <time>2018-12-28T22:25:40Z</time>
      </trkpt>
      <trkpt lat="36.210680" lon="-119.114680">
        <ele>110.548</ele>
        <time>2018-12-28T22:26:00Z</time>
      </trkpt>
      <trkpt lat="36.210670" lon="-119.113420">
        <ele>110.618</ele>
        <time>2018-12-28T22:26:20Z</time>
      </trkpt>
      <trkpt lat="36.210650" lon="-119.111980">
        <ele>110.812</ele>
        <time>2018-12-28T22:26:40Z</time>
      </trkpt>
      <trkpt lat="36.210650" lon="-119.111580">
        <ele>110.995</ele>
        <time>2018-12-28T22:27:00Z</time>
      </trkpt>
      <trkpt lat="36.210640" lon="-119.111350">
        <ele>110.976</ele>
        <time>2018-12-28T22:27:20Z</time>
      </trkpt>
      <trkpt lat="36.210630" lon="-119.111100">
        <ele>111.069</ele>
        <time>2018-12-28T22:27:40Z</time>
      </trkpt>
      <trkpt lat="36.210630" lon="-119.110930">
        <ele>111.076</ele>
        <time>2018-12-28T22:28:00Z</time>
      </trkpt>
      <trkpt lat="36.210610" lon="-119.110790">
        <ele>111.090</ele>
        <time>2018-12-28T22:28:20Z</time>
      </trkpt>
      <trkpt lat="36.210590" lon="-119.110660">
        <ele>111.119</ele>
        <time>2018-12-28T22:28:40Z</time>
      </trkpt>
      <trkpt lat="36.210580" lon="-119.110570">
        <ele>111.108</ele>
        <time>2018-12-28T22:29:00Z</time>
      </trkpt>
      <trkpt lat="36.210570" lon="-119.110520">
        <ele>111.180</ele>
        <time>2018-12-28T22:29:20Z</time>
      </trkpt>
      <trkpt lat="36.210560" lon="-119.110400">
        <ele>111.158</ele>
        <time>2018-12-28T22:29:40Z</time>
      </trkpt>
      <trkpt lat="36.210540" lon="-119.110310">
        <ele>111.243</ele>
        <time>2018-12-28T22:30:00Z</time>
      </trkpt>
      <trkpt lat="36.210470" lon="-119.110060">
        <ele>111.273</ele>
        <time>2018-12-28T22:30:20Z</time>
      </trkpt>
      <trkpt lat="36.210400" lon="-119.109870">
        <ele>111.397</ele>
        <time>2018-12-28T22:30:40Z</time>
      </trkpt>
      <trkpt lat="36.210380" lon="-119.109800">
        <ele>111.380</ele>
        <time>2018-12-28T22:31:00Z</time>
      </trkpt>
      <trkpt lat="36.210340" lon="-119.109710">
        <ele>111.451</ele>
        <time>2018-12-28T22:31:20Z</time>
      </trkpt>
      <trkpt lat="36.210290" lon="-119.109600">
        <ele>111.464</ele>
        <time>2018-12-28T22:31:40Z</time>
      </trkpt>
      <trkpt lat="36.210250" lon="-119.109520">
        <ele>111.463</ele>
        <time>2018-12-28T22:32:00Z</time>
      </trkpt>
      <trkpt lat="36.210190" lon="-119.109390">
        <ele>111.544</ele>
        <time>2018-12-28T22:32:20Z</time>
      </trkpt>
      <trkpt lat="36.210060" lon="-119.109180">
        <ele>111.618</ele>
        <time>2018-12-28T22:32:40Z</time>
      </trkpt>
      <trkpt lat="36.209900" lon="-119.108940">
        <ele>111.608</ele>
        <time>2018-12-28T22:33:00Z</time>
      </trkpt>
      <trkpt lat="36.209870" lon="-119.108900">
        <ele>111.639</ele>
        <time>2018-12-28T22:33:20Z</time>
      </trkpt>
      <trkpt lat="36.209790" lon="-119.108800">
        <ele>111.737</ele>
        <time>2018-12-28T22:33:40Z</time>
      </trkpt>
      <trkpt lat="36.209730" lon="-119.108720">
        <ele>111.732</ele>
        <time>2018-12-28T22:34:00Z</time>
      </trkpt>
      <trkpt lat="36.209680" lon="-119.108660">
        <ele>111.782</ele>
        <time>2018-12-28T22:34:20Z</time>
      </trkpt>
      <trkpt lat="36.209620" lon="-119.108610">
        <ele>111.746</ele>
        <time>2018-12-28T22:34:40Z</time>
      </trkpt>
      <trkpt lat="36.209560" lon="-119.108540">
        <ele>111.779</ele>
        <time>2018-12-28T22:35:00Z</time>
      </trkpt>
      <trkpt lat="36.209470" lon="-119.108460">
        <ele>111.860</ele>
        <time>2018-12-28T22:35:20Z</time>
      </trkpt>
      <trkpt lat="36.209400" lon="-119.108410">
        <ele>111.833</ele>
        <time>2018-12-28T22:35:40Z</time>
      </trkpt>
      <trkpt lat="36.209360" lon="-119.108370">
        <ele>111.853</ele>
        <time>2018-12-28T22:36:00Z</time>
      </trkpt>
      <trkpt lat="36.209300" lon="-119.108330">
        <ele>111.804</ele>
        <time>2018-12-28T22:36:20Z</time>
      </trkpt>
      <trkpt lat="36.209250" lon="-119.108290">
        <ele>111.814</ele>
        <time>2018-12-28T22:36:40Z</time>
      </trkpt>
      <trkpt lat="36.209160" lon="-119.108230">
        <ele>111.808</ele>
        <time>2018-12-28T22:37:00Z</time>
      </trkpt>
      <trkpt lat="36.209060" lon="-119.108160">
        <ele>111.848</ele>
        <time>2018-12-28T22:37:20Z</time>
      </trkpt>
      <trkpt lat="36.208800" lon="-119.107990">
        <ele>111.946</ele>
        <time>2018-12-28T22:37:40Z</time>
      </trkpt>
      <trkpt lat="36.208090" lon="-119.107560">
        <ele>112.071</ele>
        <time>2018-12-28T22:38:00Z</time>
      </trkpt>
      <trkpt lat="36.207550" lon="-119.107220">
        <ele>112.261</ele>
        <time>2018-12-28T22:38:20Z</time>
      </trkpt>
      <trkpt lat="36.207180" lon="-119.106990">
        <ele>112.325</ele>
        <time>2018-12-28T22:38:40Z</time>
      </trkpt>
      <trkpt lat="36.207000" lon="-119.106880">
        <ele>112.448</ele>
        <time>2018-12-28T22:39:00Z</time>
      </trkpt>
      <trkpt lat="36.206430" lon="-119.106540">
        <ele>112.639</ele>
        <time>2018-12-28T22:39:20Z</time>
      </trkpt>
      <trkpt lat="36.206320" lon="-119.106530">
        <ele>112.692</ele>
        <time>2018-12-28T22:39:40Z</time>
      </trkpt>
      <trkpt lat="36.206220" lon="-119.106490">
        <ele>112.672</ele>
        <time>2018-12-28T22:40:00Z</time>
      </trkpt>
      <trkpt lat="36.205900" lon="-119.106340">
        <ele>112.713</ele>
        <time>2018-12-28T22:40:20Z</time>
      </trkpt>
      <trkpt lat="36.205630" lon="-119.106220">
        <ele>112.814</ele>
        <time>2018-12-28T22:40:40Z</time>
      </trkpt>
      <trkpt lat="36.205410" lon="-119.106110">
        <ele>112.808</ele>
        <time>2018-12-28T22:41:00Z</time>
      </trkpt>
      <trkpt lat="36.205310" lon="-119.106060">
        <ele>112.950</ele>
        <time>2018-12-28T22:41:20Z</time>
      </trkpt>
      <trkpt lat="36.205100" lon="-119.105950">
        <ele>112.978</ele>
        <time>2018-12-28T22:41:40Z</time>
      </trkpt>
      <trkpt lat="36.204770" lon="-119.105760">
        <ele>113.093</ele>
        <time>2018-12-28T22:42:00Z</time>
      </trkpt>
      <trkpt lat="36.204660" lon="-119.105690">
        <ele>113.163</ele>
        <time>2018-12-28T22:42:20Z</time>
      </trkpt>
      <trkpt lat="36.204530" lon="-119.105600">
        <ele>113.187</ele>
        <time>2018-12-28T22:42:40Z</time>
      </trkpt>
      <trkpt lat="36.204370" lon="-119.105490">
        <ele>113.240</ele>
        <time>2018-12-28T22:43:00Z</time>
      </trkpt>
      <trkpt lat="36.204230" lon="-119.105390">
        <ele>113.391</ele>
        <time>2018-12-28T22:43:20Z</time>
      </trkpt>
      <trkpt lat="36.204160" lon="-119.105330">
        <ele>113.384</ele>
        <time>2018-12-28T22:43:40Z</time>
      </trkpt>
      <trkpt lat="36.204040" lon="-119.105240">
        <ele>113.499</ele>
        <time>2018-12-28T22:44:00Z</time>
      </trkpt>
      <trkpt lat="36.203920" lon="-119.105140">
        <ele>113.407</ele>
        <time>2018-12-28T22:44:20Z</time>
      </trkpt>
      <trkpt lat="36.203320" lon="-119.104670">
        <ele>113.627</ele>
        <time>2018-12-28T22:44:40Z</time>
      </trkpt>
      <trkpt lat="36.203250" lon="-119.104610">
        <ele>113.608</ele>
        <time>2018-12-28T22:45:00Z</time>
      </trkpt>
      <trkpt lat="36.203040" lon="-119.104430">
        <ele>113.752</ele>
        <time>2018-12-28T22:45:20Z</time>
      </trkpt>
      <trkpt lat="36.202920" lon="-119.104330">
        <ele>113.720</ele>
        <time>2018-12-28T22:45:40Z</time>
      </trkpt>
      <trkpt lat="36.202830" lon="-119.104260">
        <ele>113.745</ele>
        <time>2018-12-28T22:46:00Z</time>
      </trkpt>
      <trkpt lat="36.202720" lon="-119.104170">
        <ele>113.715</ele>
        <time>2018-12-28T22:46:20Z</time>
      </trkpt>
      <trkpt lat="36.202610" lon="-119.104080">
        <ele>113.789</ele>
        <time>2018-12-28T22:46:40Z</time>
      </trkpt>
      <trkpt lat="36.202470" lon="-119.103980">
        <ele>113.742</ele>
        <time>2018-12-28T22:47:00Z</time>
      </trkpt>
      <trkpt lat="36.202380" lon="-119.103910">
        <ele>113.813</ele>
        <time>2018-12-28T22:47:20Z</time>
      </trkpt>
      <trkpt lat="36.202140" lon="-119.103740">
        <ele>113.856</ele>
        <time>2018-12-28T22:47:40Z</time>
      </trkpt>
      <trkpt lat="36.201950" lon="-119.103610">
        <ele>113.887</ele>
        <time>2018-12-28T22:48:00Z</time>
      </trkpt>
      <trkpt lat="36.201760" lon="-119.103490">
        <ele>113.842</ele>
        <time>2018-12-28T22:48:20Z</time>
      </trkpt>
      <trkpt lat="36.201030" lon="-119.103020">
        <ele>113.926</ele>
        <time>2018-12-28T22:48:40Z</time>
      </trkpt>
      <trkpt lat="36.199870" lon="-119.102300">
        <ele>114.008</ele>
        <time>2018-12-28T22:49:00Z</time>
      </trkpt>
      <trkpt lat="36.199390" lon="-119.102000">
        <ele>114.241</ele>
        <time>2018-12-28T22:49:20Z</time>
      </trkpt>
      <trkpt lat="36.198770" lon="-119.101620">
        <ele>114.399</ele>
        <time>2018-12-28T22:49:40Z</time>
      </trkpt>
      <trkpt lat="36.198150" lon="-119.101230">
        <ele>114.444</ele>
        <time>2018-12-28T22:50:00Z</time>
      </trkpt>
      <trkpt lat="36.197330" lon="-119.100720">
        <ele>114.684</ele>
        <time>2018-12-28T22:50:20Z</time>
      </trkpt>
      <trkpt lat="36.197250" lon="-119.100670">
        <ele>114.648</ele>
        <time>2018-12-28T22:50:40Z</time>
      </trkpt>
      <trkpt lat="36.195970" lon="-119.099860">
        <ele>114.851</ele>
        <time>2018-12-28T22:51:00Z</time>
      </trkpt>
      <trkpt lat="36.195700" lon="-119.099690">
        <ele>114.952</ele>
        <time>2018-12-28T22:51:20Z</time>
      </trkpt>
      <trkpt lat="36.195010" lon="-119.099230">
        <ele>115.135</ele>
        <time>2018-12-28T22:51:40Z</time>
      </trkpt>
      <trkpt lat="36.193960" lon="-119.098540">
        <ele>115.383</ele>
        <time>2018-12-28T22:52:00Z</time>
      </trkpt>
      <trkpt lat="36.192790" lon="-119.097760">
        <ele>115.525</ele>
        <time>2018-12-28T22:52:20Z</time>
      </trkpt>
      <trkpt lat="36.191740" lon="-119.097070">
        <ele>115.617</ele>
        <time>2018-12-28T22:52:40Z</time>
      </trkpt>
      <trkpt lat="36.191040" lon="-119.096610">
        <ele>115.708</ele>
        <time>2018-12-28T22:53:00Z</time>
      </trkpt>
      <trkpt lat="36.190240" lon="-119.096080">
        <ele>115.791</ele>
        <time>2018-12-28T22:53:20Z</time>
      </trkpt>
      <trkpt lat="36.189590" lon="-119.095660">
        <ele>115.749</ele>
        <time>2018-12-28T22:53:40Z</time>
      </trkpt>
      <trkpt lat="36.188970" lon="-119.095250">
        <ele>115.764</ele>
        <time>2018-12-28T22:54:00Z</time>
      </trkpt>
      <trkpt lat="36.188130" lon="-119.094700">
        <ele>115.744</ele>
        <time>2018-12-28T22:54:20Z</time>
      </trkpt>
      <trkpt lat="36.187440" lon="-119.094250">
        <ele>115.658</ele>
        <time>2018-12-28T22:54:40Z</time>
      </trkpt>
      <trkpt lat="36.186150" lon="-119.093410">
        <ele>115.681</ele>
        <time>2018-12-28T22:55:00Z</time>
      </trkpt>
      <trkpt lat="36.185630" lon="-119.093070">
        <ele>115.662</ele>
        <time>2018-12-28T22:55:20Z</time>
      </trkpt>
      <trkpt lat="36.185470" lon="-119.092970">
        <ele>115.625</ele>
        <time>2018-12-28T22:55:40Z</time>
      </trkpt>
      <trkpt lat="36.184320" lon="-119.092210">
        <ele>115.773</ele>
        <time>2018-12-28T22:56:00Z</time>
      </trkpt>
      <trkpt lat="36.183890" lon="-119.091940">
        <ele>115.885</ele>
        <time>2018-12-28T22:56:20Z</time>
      </trkpt>
      <trkpt lat="36.183370" lon="-119.091600">
        <ele>116.013</ele>
        <time>2018-12-28T22:56:40Z</time>
      </trkpt>
      <trkpt lat="36.182980" lon="-119.091340">
        <ele>116.108</ele>
        <time>2018-12-28T22:57:00Z</time>
      </trkpt>
      <trkpt lat="36.182390" lon="-119.090960">
        <ele>116.370</ele>
        <time>2018-12-28T22:57:20Z</time>
      </trkpt>
      <trkpt lat="36.182080" lon="-119.090760">
        <ele>116.438</ele>
        <time>2018-12-28T22:57:40Z</time>
      </trkpt>
      <trkpt lat="36.181670" lon="-119.090490">
        <ele>116.473</ele>
        <time>2018-12-28T22:58:00Z</time>
      </trkpt>
      <trkpt lat="36.181340" lon="-119.090280">
        <ele>116.553</ele>
        <time>2018-12-28T22:58:20Z</time>
      </trkpt>
      <trkpt lat="36.181190" lon="-119.090180">
        <ele>116.517</ele>
        <time>2018-12-28T22:58:40Z</time>
      </trkpt>
      <trkpt lat="36.180990" lon="-119.090050">
        <ele>116.530</ele>
        <time>2018-12-28T22:59:00Z</time>
      </trkpt>
      <trkpt lat="36.180620" lon="-119.089840">
        <ele>116.571</ele>
        <time>2018-12-28T22:59:20Z</time>
      </trkpt>
      <trkpt lat="36.180370" lon="-119.089710">
        <ele>116.554</ele>
        <time>2018-12-28T22:59:40Z</time>
      </trkpt>
      <trkpt lat="36.180140" lon="-119.089590">
        <ele>116.578</ele>
        <time>2018-12-28T23:00:00Z</time>
      </trkpt>
      <trkpt lat="36.179290" lon="-119.089160">
        <ele>116.633</ele>
        <time>2018-12-28T23:00:20Z</time>
      </trkpt>
      <trkpt lat="36.178910" lon="-119.088970">
        <ele>116.626</ele>
        <time>2018-12-28T23:00:40Z</time>
      </trkpt>
      <trkpt lat="36.178670" lon="-119.088850">
        <ele>116.708</ele>
        <time>2018-12-28T23:01:00Z</time>
      </trkpt>
      <trkpt lat="36.177790" lon="-119.088420">
        <ele>116.990</ele>
        <time>2018-12-28T23:01:20Z</time>
      </trkpt>
      <trkpt lat="36.176340" lon="-119.087700">
        <ele>117.288</ele>
        <time>2018-12-28T23:01:40Z</time>
      </trkpt>
      <trkpt lat="36.175110" lon="-119.087090">
        <ele>117.713</ele>
        <time>2018-12-28T23:02:00Z</time>
      </trkpt>
      <trkpt lat="36.174400" lon="-119.086740">
        <ele>117.913</ele>
        <time>2018-12-28T23:02:20Z</time>
      </trkpt>
      <trkpt lat="36.173520" lon="-119.086310">
        <ele>118.017</ele>
        <time>2018-12-28T23:02:40Z</time>
      </trkpt>
      <trkpt lat="36.172560" lon="-119.085830">
        <ele>118.240</ele>
        <time>2018-12-28T23:03:00Z</time>
      </trkpt>
      <trkpt lat="36.171450" lon="-119.085280">
        <ele>118.141</ele>
        <time>2018-12-28T23:03:20Z</time>
      </trkpt>
      <trkpt lat="36.170150" lon="-119.084640">
        <ele>118.154</ele>
        <time>2018-12-28T23:03:40Z</time>
      </trkpt>
      <trkpt lat="36.169280" lon="-119.084210">
        <ele>118.351</ele>
        <time>2018-12-28T23:04:00Z</time>
      </trkpt>
      <trkpt lat="36.168760" lon="-119.083950">
        <ele>118.401</ele>
        <time>2018-12-28T23:04:20Z</time>
      </trkpt>
      <trkpt lat="36.168660" lon="-119.083900">
        <ele>118.511</ele>
        <time>2018-12-28T23:04:40Z</time>
      </trkpt>
      <trkpt lat="36.168550" lon="-119.083840">
        <ele>118.508</ele>
        <time>2018-12-28T23:05:00Z</time>
      </trkpt>
      <trkpt lat="36.167790" lon="-119.083470">
        <ele>118.658</ele>
        <time>2018-12-28T23:05:20Z</time>
      </trkpt>
      <trkpt lat="36.167290" lon="-119.083230">
        <ele>118.726</ele>
        <time>2018-12-28T23:05:40Z</time>
      </trkpt>
      <trkpt lat="36.166470" lon="-119.082820">
        <ele>118.941</ele>
        <time>2018-12-28T23:06:00Z</time>
      </trkpt>
      <trkpt lat="36.165950" lon="-119.082570">
        <ele>118.951</ele>
        <time>2018-12-28T23:06:20Z</time>
      </trkpt>
      <trkpt lat="36.165370" lon="-119.082280">
        <ele>119.055</ele>
        <time>2018-12-28T23:06:40Z</time>
      </trkpt>
      <trkpt lat="36.164470" lon="-119.081830">
        <ele>119.178</ele>
        <time>2018-12-28T23:07:00Z</time>
      </trkpt>
      <trkpt lat="36.163620" lon="-119.081410">
        <ele>119.149</ele>
        <time>2018-12-28T23:07:20Z</time>
      </trkpt>
      <trkpt lat="36.162760" lon="-119.080990">
        <ele>119.032</ele>
        <time>2018-12-28T23:07:40Z</time>
      </trkpt>
      <trkpt lat="36.162180" lon="-119.080700">
        <ele>119.081</ele>
        <time>2018-12-28T23:08:00Z</time>
      </trkpt>
      <trkpt lat="36.161300" lon="-119.080270">
        <ele>119.161</ele>
        <time>2018-12-28T23:08:20Z</time>
      </trkpt>
      <trkpt lat="36.160810" lon="-119.080020">
        <ele>119.217</ele>
        <time>2018-12-28T23:08:40Z</time>
      </trkpt>
      <trkpt lat="36.160050" lon="-119.079640">
        <ele>119.408</ele>
        <time>2018-12-28T23:09:00Z</time>
      </trkpt>
      <trkpt lat="36.159330" lon="-119.079290">
        <ele>119.681</ele>
        <time>2018-12-28T23:09:20Z</time>
      </trkpt>
      <trkpt lat="36.158460" lon="-119.078860">
        <ele>119.819</ele>
        <time>2018-12-28T23:09:40Z</time>
      </trkpt>
      <trkpt lat="36.157590" lon="-119.078420">
        <ele>119.734</ele>
        <time>2018-12-28T23:10:00Z</time>
      </trkpt>
      <trkpt lat="36.156420" lon="-119.077840">
        <ele>119.684</ele>
        <time>2018-12-28T23:10:20Z</time>
      </trkpt>
      <trkpt lat="36.155650" lon="-119.077460">
        <ele>119.928</ele>
        <time>2018-12-28T23:10:40Z</time>
      </trkpt>
      <trkpt lat="36.155170" lon="-119.077230">
        <ele>120.031</ele>
        <time>2018-12-28T23:11:00Z</time>
      </trkpt>
      <trkpt lat="36.154900" lon="-119.077100">
        <ele>120.012</ele>
        <time>2018-12-28T23:11:20Z</time>
      </trkpt>
      <trkpt lat="36.154510" lon="-119.076910">
        <ele>120.195</ele>
        <time>2018-12-28T23:11:40Z</time>
      </trkpt>
      <trkpt lat="36.154120" lon="-119.076710">
        <ele>120.278</ele>
        <time>2018-12-28T23:12:00Z</time>
      </trkpt>
      <trkpt lat="36.154000" lon="-119.076650">
        <ele>120.233</ele>
        <time>2018-12-28T23:12:20Z</time>
      </trkpt>
      <trkpt lat="36.153530" lon="-119.076420">
        <ele>120.226</ele>
        <time>2018-12-28T23:12:40Z</time>
      </trkpt>
      <trkpt lat="36.152780" lon="-119.076040">
        <ele>120.308</ele>
        <time>2018-12-28T23:13:00Z</time>
      </trkpt>
      <trkpt lat="36.152530" lon="-119.075920">
        <ele>120.350</ele>
        <time>2018-12-28T23:13:20Z</time>
      </trkpt>
      <trkpt lat="36.152060" lon="-119.075690">
        <ele>120.388</ele>
        <time>2018-12-28T23:13:40Z</time>
      </trkpt>
      <trkpt lat="36.151670" lon="-119.075490">
        <ele>120.213</ele>
        <time>2018-12-28T23:14:00Z</time>
      </trkpt>
      <trkpt lat="36.151230" lon="-119.075270">
        <ele>120.153</ele>
        <time>2018-12-28T23:14:20Z</time>
      </trkpt>
      <trkpt lat="36.150740" lon="-119.075030">
        <ele>119.937</ele>
        <time>2018-12-28T23:14:40Z</time>
      </trkpt>
      <trkpt lat="36.150070" lon="-119.074700">
        <ele>119.730</ele>
        <time>2018-12-28T23:15:00Z</time>
      </trkpt>
      <trkpt lat="36.149760" lon="-119.074540">
        <ele>119.611</ele>
        <time>2018-12-28T23:15:20Z</time>
      </trkpt>
      <trkpt lat="36.149100" lon="-119.074210">
        <ele>119.594</ele>
        <time>2018-12-28T23:15:40Z</time>
      </trkpt>
      <trkpt lat="36.148500" lon="-119.073920">
        <ele>119.615</ele>
        <time>2018-12-28T23:16:00Z</time>
      </trkpt>
      <trkpt lat="36.147890" lon="-119.073620">
        <ele>119.865</ele>
        <time>2018-12-28T23:16:20Z</time>
      </trkpt>
      <trkpt lat="36.146970" lon="-119.073170">
        <ele>119.811</ele>
        <time>2018-12-28T23:16:40Z</time>
      </trkpt>
      <trkpt lat="36.146840" lon="-119.073110">
        <ele>119.908</ele>
        <time>2018-12-28T23:17:00Z</time>
      </trkpt>
      <trkpt lat="36.145550" lon="-119.072470">
        <ele>120.314</ele>
        <time>2018-12-28T23:17:20Z</time>
      </trkpt>
      <trkpt lat="36.145050" lon="-119.072220">
        <ele>120.522</ele>
        <time>2018-12-28T23:17:40Z</time>
      </trkpt>
      <trkpt lat="36.144470" lon="-119.071930">
        <ele>120.467</ele>
        <time>2018-12-28T23:18:00Z</time>
      </trkpt>
      <trkpt lat="36.143970" lon="-119.071680">
        <ele>120.497</ele>
        <time>2018-12-28T23:18:20Z</time>
      </trkpt>
      <trkpt lat="36.143710" lon="-119.071550">
        <ele>120.341</ele>
        <time>2018-12-28T23:18:40Z</time>
      </trkpt>
      <trkpt lat="36.143480" lon="-119.071410">
        <ele>120.374</ele>
        <time>2018-12-28T23:19:00Z</time>
      </trkpt>
      <trkpt lat="36.143230" lon="-119.071260">
        <ele>120.225</ele>
        <time>2018-12-28T23:19:20Z</time>
      </trkpt>
      <trkpt lat="36.142980" lon="-119.071110">
        <ele>120.248</ele>
        <time>2018-12-28T23:19:40Z</time>
      </trkpt>
      <trkpt lat="36.142880" lon="-119.071040">
        <ele>120.218</ele>
        <time>2018-12-28T23:20:00Z</time>
      </trkpt>
      <trkpt lat="36.142750" lon="-119.070960">
        <ele>120.298</ele>
        <time>2018-12-28T23:20:20Z</time>
      </trkpt>
      <trkpt lat="36.142540" lon="-119.070820">
        <ele>120.017</ele>
        <time>2018-12-28T23:20:40Z</time>
      </trkpt>
      <trkpt lat="36.142420" lon="-119.070730">
        <ele>120.008</ele>
        <time>2018-12-28T23:21:00Z</time>
      </trkpt>
      <trkpt lat="36.142290" lon="-119.070640">
        <ele>119.934</ele>
        <time>2018-12-28T23:21:20Z</time>
      </trkpt>
      <trkpt lat="36.142180" lon="-119.070550">
        <ele>119.932</ele>
        <time>2018-12-28T23:21:40Z</time>
      </trkpt>
      <trkpt lat="36.142060" lon="-119.070460">
        <ele>119.827</ele>
        <time>2018-12-28T23:22:00Z</time>
      </trkpt>
      <trkpt lat="36.141640" lon="-119.070120">
        <ele>119.887</ele>
        <time>2018-12-28T23:22:20Z</time>
      </trkpt>
      <trkpt lat="36.140970" lon="-119.069600">
        <ele>120.351</ele>
        <time>2018-12-28T23:22:40Z</time>
      </trkpt>
      <trkpt lat="36.140650" lon="-119.069340">
        <ele>120.544</ele>
        <time>2018-12-28T23:23:00Z</time>
      </trkpt>
      <trkpt lat="36.139970" lon="-119.068790">
        <ele>121.015</ele>
        <time>2018-12-28T23:23:20Z</time>
      </trkpt>
      <trkpt lat="36.139410" lon="-119.068350">
        <ele>121.398</ele>
        <time>2018-12-28T23:23:40Z</time>
      </trkpt>
      <trkpt lat="36.138760" lon="-119.067830">
        <ele>121.576</ele>
        <time>2018-12-28T23:24:00Z</time>
      </trkpt>
      <trkpt lat="36.138110" lon="-119.067320">
        <ele>121.990</ele>
        <time>2018-12-28T23:24:20Z</time>
      </trkpt>
      <trkpt lat="36.137980" lon="-119.067210">
        <ele>121.919</ele>
        <time>2018-12-28T23:24:40Z</time>
      </trkpt>
      <trkpt lat="36.135870" lon="-119.065520">
        <ele>122.508</ele>
        <time>2018-12-28T23:25:00Z</time>
      </trkpt>
      <trkpt lat="36.135530" lon="-119.065250">
        <ele>122.790</ele>
        <time>2018-12-28T23:25:20Z</time>
      </trkpt>
      <trkpt lat="36.135330" lon="-119.065090">
        <ele>122.748</ele>
        <time>2018-12-28T23:25:40Z</time>
      </trkpt>
      <trkpt lat="36.134280" lon="-119.064250">
        <ele>123.013</ele>
        <time>2018-12-28T23:26:00Z</time>
      </trkpt>
      <trkpt lat="36.133870" lon="-119.063920">
        <ele>123.133</ele>
        <time>2018-12-28T23:26:20Z</time>
      </trkpt>
      <trkpt lat="36.133300" lon="-119.063460">
        <ele>123.077</ele>
        <time>2018-12-28T23:26:40Z</time>
      </trkpt>
      <trkpt lat="36.133110" lon="-119.063310">
        <ele>123.070</ele>
        <time>2018-12-28T23:27:00Z</time>
      </trkpt>
      <trkpt lat="36.132830" lon="-119.063110">
        <ele>123.071</ele>
        <time>2018-12-28T23:27:20Z</time>
      </trkpt>
      <trkpt lat="36.132520" lon="-119.062850">
        <ele>123.144</ele>
        <time>2018-12-28T23:27:40Z</time>
      </trkpt>
      <trkpt lat="36.131190" lon="-119.061790">
        <ele>123.578</ele>
        <time>2018-12-28T23:28:00Z</time>
      </trkpt>
      <trkpt lat="36.129080" lon="-119.060100">
        <ele>123.933</ele>
        <time>2018-12-28T23:28:20Z</time>
      </trkpt>
      <trkpt lat="36.128780" lon="-119.059870">
        <ele>124.026</ele>
        <time>2018-12-28T23:28:40Z</time>
      </trkpt>
      <trkpt lat="36.128140" lon="-119.059350">
        <ele>124.108</ele>
        <time>2018-12-28T23:29:00Z</time>
      </trkpt>
      <trkpt lat="36.127370" lon="-119.058730">
        <ele>124.490</ele>
        <time>2018-12-28T23:29:20Z</time>
      </trkpt>
      <trkpt lat="36.126870" lon="-119.058330">
        <ele>124.538</ele>
        <time>2018-12-28T23:29:40Z</time>
      </trkpt>
      <trkpt lat="36.126160" lon="-119.057770">
        <ele>124.743</ele>
        <time>2018-12-28T23:30:00Z</time>
      </trkpt>
      <trkpt lat="36.125330" lon="-119.057110">
        <ele>125.063</ele>
        <time>2018-12-28T23:30:20Z</time>
      </trkpt>
      <trkpt lat="36.124880" lon="-119.056730">
        <ele>125.137</ele>
        <time>2018-12-28T23:30:40Z</time>
      </trkpt>
      <trkpt lat="36.124860" lon="-119.056720">
        <ele>125.240</ele>
        <time>2018-12-28T23:31:00Z</time>
      </trkpt>
      <trkpt lat="36.124750" lon="-119.056630">
        <ele>125.281</ele>
        <time>2018-12-28T23:31:20Z</time>
      </trkpt>
      <trkpt lat="36.124310" lon="-119.056280">
        <ele>125.384</ele>
        <time>2018-12-28T23:31:40Z</time>
      </trkpt>
      <trkpt lat="36.123560" lon="-119.055710">
        <ele>125.447</ele>
        <time>2018-12-28T23:32:00Z</time>
      </trkpt>
      <trkpt lat="36.123300" lon="-119.055540">
        <ele>125.429</ele>
        <time>2018-12-28T23:32:20Z</time>
      </trkpt>
      <trkpt lat="36.122700" lon="-119.055150">
        <ele>125.521</ele>
        <time>2018-12-28T23:32:40Z</time>
      </trkpt>
      <trkpt lat="36.121730" lon="-119.054530">
        <ele>125.608</ele>
        <time>2018-12-28T23:33:00Z</time>
      </trkpt>
      <trkpt lat="36.121380" lon="-119.054310">
        <ele>125.777</ele>
        <time>2018-12-28T23:33:20Z</time>
      </trkpt>
      <trkpt lat="36.120860" lon="-119.053980">
        <ele>125.865</ele>
        <time>2018-12-28T23:33:40Z</time>
      </trkpt>
      <trkpt lat="36.120370" lon="-119.053660">
        <ele>125.960</ele>
        <time>2018-12-28T23:34:00Z</time>
      </trkpt>
      <trkpt lat="36.119080" lon="-119.052830">
        <ele>126.190</ele>
        <time>2018-12-28T23:34:20Z</time>
      </trkpt>
      <trkpt lat="36.118490" lon="-119.052450">
        <ele>126.274</ele>
        <time>2018-12-28T23:34:40Z</time>
      </trkpt>
      <trkpt lat="36.118050" lon="-119.052170">
        <ele>126.237</ele>
        <time>2018-12-28T23:35:00Z</time>
      </trkpt>
      <trkpt lat="36.117230" lon="-119.051640">
        <ele>126.398</ele>
        <time>2018-12-28T23:35:20Z</time>
      </trkpt>
      <trkpt lat="36.116620" lon="-119.051250">
        <ele>126.361</ele>
        <time>2018-12-28T23:35:40Z</time>
      </trkpt>
      <trkpt lat="36.116180" lon="-119.050970">
        <ele>126.362</ele>
        <time>2018-12-28T23:36:00Z</time>
      </trkpt>
      <trkpt lat="36.115940" lon="-119.050820">
        <ele>126.383</ele>
        <time>2018-12-28T23:36:20Z</time>
      </trkpt>
      <trkpt lat="36.115470" lon="-119.050520">
        <ele>126.311</ele>
        <time>2018-12-28T23:36:40Z</time>
      </trkpt>
      <trkpt lat="36.114770" lon="-119.050070">
        <ele>126.308</ele>
        <time>2018-12-28T23:37:00Z</time>
      </trkpt>
      <trkpt lat="36.114170" lon="-119.049690">
        <ele>126.239</ele>
        <time>2018-12-28T23:37:20Z</time>
      </trkpt>
      <trkpt lat="36.113590" lon="-119.049310">
        <ele>126.147</ele>
        <time>2018-12-28T23:37:40Z</time>
      </trkpt>
      <trkpt lat="36.112760" lon="-119.048780">
        <ele>126.072</ele>
        <time>2018-12-28T23:38:00Z</time>
      </trkpt>
      <trkpt lat="36.112110" lon="-119.048360">
        <ele>125.922</ele>
        <time>2018-12-28T23:38:20Z</time>
      </trkpt>
      <trkpt lat="36.111580" lon="-119.048020">
        <ele>126.036</ele>
        <time>2018-12-28T23:38:40Z</time>
      </trkpt>
      <trkpt lat="36.108900" lon="-119.046290">
        <ele>127.039</ele>
        <time>2018-12-28T23:39:00Z</time>
      </trkpt>
      <trkpt lat="36.108510" lon="-119.046050">
        <ele>127.080</ele>
        <time>2018-12-28T23:39:20Z</time>
      </trkpt>
      <trkpt lat="36.107960" lon="-119.045690">
        <ele>127.143</ele>
        <time>2018-12-28T23:39:40Z</time>
      </trkpt>
      <trkpt lat="36.107610" lon="-119.045460">
        <ele>127.148</ele>
        <time>2018-12-28T23:40:00Z</time>
      </trkpt>
      <trkpt lat="36.105610" lon="-119.044060">
        <ele>127.661</ele>
        <time>2018-12-28T23:40:20Z</time>
      </trkpt>
      <trkpt lat="36.105130" lon="-119.043740">
        <ele>127.917</ele>
        <time>2018-12-28T23:40:40Z</time>
      </trkpt>
      <trkpt lat="36.104250" lon="-119.043160">
        <ele>128.408</ele>
        <time>2018-12-28T23:41:00Z</time>
      </trkpt>
      <trkpt lat="36.103870" lon="-119.042900">
        <ele>128.527</ele>
        <time>2018-12-28T23:41:20Z</time>
      </trkpt>
      <trkpt lat="36.103210" lon="-119.042460">
        <ele>128.745</ele>
        <time>2018-12-28T23:41:40Z</time>
      </trkpt>
      <trkpt lat="36.103060" lon="-119.042370">
        <ele>128.850</ele>
        <time>2018-12-28T23:42:00Z</time>
      </trkpt>
      <trkpt lat="36.102840" lon="-119.042220">
        <ele>128.930</ele>
        <time>2018-12-28T23:42:20Z</time>
      </trkpt>
      <trkpt lat="36.102710" lon="-119.042140">
        <ele>129.054</ele>
        <time>2018-12-28T23:42:40Z</time>
      </trkpt>
      <trkpt lat="36.102310" lon="-119.041900">
        <ele>129.217</ele>
        <time>2018-12-28T23:43:00Z</time>
      </trkpt>
      <trkpt lat="36.101970" lon="-119.041710">
        <ele>129.548</ele>
        <time>2018-12-28T23:43:20Z</time>
      </trkpt>
      <trkpt lat="36.101630" lon="-119.041540">
        <ele>129.731</ele>
        <time>2018-12-28T23:43:40Z</time>
      </trkpt>
      <trkpt lat="36.101130" lon="-119.041290">
        <ele>129.996</ele>
        <time>2018-12-28T23:44:00Z</time>
      </trkpt>
      <trkpt lat="36.100690" lon="-119.041080">
        <ele>130.031</ele>
        <time>2018-12-28T23:44:20Z</time>
      </trkpt>
      <trkpt lat="36.099990" lon="-119.040790">
        <ele>130.124</ele>
        <time>2018-12-28T23:44:40Z</time>
      </trkpt>
      <trkpt lat="36.099840" lon="-119.040730">
        <ele>130.108</ele>
        <time>2018-12-28T23:45:00Z</time>
      </trkpt>
      <trkpt lat="36.099620" lon="-119.040660">
        <ele>130.142</ele>
        <time>2018-12-28T23:45:20Z</time>
      </trkpt>
      <trkpt lat="36.099350" lon="-119.040560">
        <ele>130.110</ele>
        <time>2018-12-28T23:45:40Z</time>
      </trkpt>
      <trkpt lat="36.099010" lon="-119.040450">
        <ele>130.245</ele>
        <time>2018-12-28T23:46:00Z</time>
      </trkpt>
      <trkpt lat="36.098250" lon="-119.040220">
        <ele>130.355</ele>
        <time>2018-12-28T23:46:20Z</time>
      </trkpt>
      <trkpt lat="36.097500" lon="-119.040050">
        <ele>130.569</ele>
        <time>2018-12-28T23:46:40Z</time>
      </trkpt>
      <trkpt lat="36.096730" lon="-119.039910">
        <ele>130.742</ele>
        <time>2018-12-28T23:47:00Z</time>
      </trkpt>
      <trkpt lat="36.096240" lon="-119.039840">
        <ele>130.853</ele>
        <time>2018-12-28T23:47:20Z</time>
      </trkpt>
      <trkpt lat="36.095880" lon="-119.039800">
        <ele>130.986</ele>
        <time>2018-12-28T23:47:40Z</time>
      </trkpt>
      <trkpt lat="36.095690" lon="-119.039780">
        <ele>130.979</ele>
        <time>2018-12-28T23:48:00Z</time>
      </trkpt>
      <trkpt lat="36.095330" lon="-119.039750">
        <ele>130.905</ele>
        <time>2018-12-28T23:48:20Z</time>
      </trkpt>
      <trkpt lat="36.094850" lon="-119.039730">
        <ele>131.025</ele>
        <time>2018-12-28T23:48:40Z</time>
      </trkpt>
      <trkpt lat="36.092100" lon="-119.039640">
        <ele>131.208</ele>
        <time>2018-12-28T23:49:00Z</time>
      </trkpt>
      <trkpt lat="36.091300" lon="-119.039610">
        <ele>131.210</ele>
        <time>2018-12-28T23:49:20Z</time>
      </trkpt>
      <trkpt lat="36.090980" lon="-119.039600">
        <ele>131.238</ele>
        <time>2018-12-28T23:49:40Z</time>
      </trkpt>
      <trkpt lat="36.087580" lon="-119.039500">
        <ele>131.473</ele>
        <time>2018-12-28T23:50:00Z</time>
      </trkpt>
      <trkpt lat="36.087560" lon="-119.039500">
        <ele>131.483</ele>
        <time>2018-12-28T23:50:20Z</time>
      </trkpt>
      <trkpt lat="36.086610" lon="-119.039460">
        <ele>131.447</ele>
        <time>2018-12-28T23:50:40Z</time>
      </trkpt>
      <trkpt lat="36.085700" lon="-119.039440">
        <ele>131.530</ele>
        <time>2018-12-28T23:51:00Z</time>
      </trkpt>
      <trkpt lat="36.085380" lon="-119.039430">
        <ele>131.521</ele>
        <time>2018-12-28T23:51:20Z</time>
      </trkpt>
      <trkpt lat="36.084230" lon="-119.039420">
        <ele>131.764</ele>
        <time>2018-12-28T23:51:40Z</time>
      </trkpt>
      <trkpt lat="36.083020" lon="-119.039390">
        <ele>131.887</ele>
        <time>2018-12-28T23:52:00Z</time>
      </trkpt>
      <trkpt lat="36.082250" lon="-119.039400">
        <ele>131.942</ele>
        <time>2018-12-28T23:52:20Z</time>
      </trkpt>
      <trkpt lat="36.081680" lon="-119.039410">
        <ele>132.126</ele>
        <time>2018-12-28T23:52:40Z</time>
      </trkpt>
      <trkpt lat="36.080760" lon="-119.039450">
        <ele>132.308</ele>
        <time>2018-12-28T23:53:00Z</time>
      </trkpt>
      <trkpt lat="36.080520" lon="-119.039470">
        <ele>132.461</ele>
        <time>2018-12-28T23:53:20Z</time>
      </trkpt>
      <trkpt lat="36.080410" lon="-119.039470">
        <ele>132.439</ele>
        <time>2018-12-28T23:53:40Z</time>
      </trkpt>
      <trkpt lat="36.080260" lon="-119.039470">
        <ele>132.434</ele>
        <time>2018-12-28T23:54:00Z</time>
      </trkpt>
      <trkpt lat="36.079360" lon="-119.039520">
        <ele>132.724</ele>
        <time>2018-12-28T23:54:20Z</time>
      </trkpt>
      <trkpt lat="36.077920" lon="-119.039590">
        <ele>133.218</ele>
        <time>2018-12-28T23:54:40Z</time>
      </trkpt>
      <trkpt lat="36.077560" lon="-119.039610">
        <ele>133.391</ele>
        <time>2018-12-28T23:55:00Z</time>
      </trkpt>
      <trkpt lat="36.077320" lon="-119.039620">
        <ele>133.462</ele>
        <time>2018-12-28T23:55:20Z</time>
      </trkpt>
      <trkpt lat="36.077040" lon="-119.039640">
        <ele>133.555</ele>
        <time>2018-12-28T23:55:40Z</time>
      </trkpt>
      <trkpt lat="36.076790" lon="-119.039650">
        <ele>133.616</ele>
        <time>2018-12-28T23:56:00Z</time>
      </trkpt>
      <trkpt lat="36.076030" lon="-119.039690">
        <ele>133.876</ele>
        <time>2018-12-28T23:56:20Z</time>
      </trkpt>
      <trkpt lat="36.075830" lon="-119.039700">
        <ele>133.913</ele>
        <time>2018-12-28T23:56:40Z</time>
      </trkpt>
      <trkpt lat="36.075340" lon="-119.039730">
        <ele>134.008</ele>
        <time>2018-12-28T23:57:00Z</time>
      </trkpt>
      <trkpt lat="36.074870" lon="-119.039760">
        <ele>134.134</ele>
        <time>2018-12-28T23:57:20Z</time>
      </trkpt>
      <trkpt lat="36.074810" lon="-119.039760">
        <ele>134.112</ele>
        <time>2018-12-28T23:57:40Z</time>
      </trkpt>
      <trkpt lat="36.074550" lon="-119.039780">
        <ele>134.257</ele>
        <time>2018-12-28T23:58:00Z</time>
      </trkpt>
      <trkpt lat="36.074260" lon="-119.039790">
        <ele>134.327</ele>
        <time>2018-12-28T23:58:20Z</time>
      </trkpt>
      <trkpt lat="36.073900" lon="-119.039810">
        <ele>134.461</ele>
        <time>2018-12-28T23:58:40Z</time>
      </trkpt>
      <trkpt lat="36.073510" lon="-119.039830">
        <ele>134.544</ele>
        <time>2018-12-28T23:59:00Z</time>
      </trkpt>
      <trkpt lat="36.073280" lon="-119.039840">
        <ele>134.565</ele>
        <time>2018-12-28T23:59:20Z</time>
      </trkpt>
      <trkpt lat="36.073060" lon="-119.039850">
        <ele>134.548</ele>
        <time>2018-12-28T23:59:40Z</time>
      </trkpt>
      <trkpt lat="36.072350" lon="-119.039860">
        <ele>134.057</ele>
        <time>2018-12-29T00:00:00Z</time>
      </trkpt>
      <trkpt lat="36.071780" lon="-119.039850">
        <ele>133.500</ele>
        <time>2018-12-29T00:00:20Z</time>
      </trkpt>
      <trkpt lat="36.071410" lon="-119.039840">
        <ele>133.520</ele>
        <time>2018-12-29T00:00:40Z</time>
      </trkpt>
      <trkpt lat="36.070990" lon="-119.039820">
        <ele>133.808</ele>
        <time>2018-12-29T00:01:00Z</time>
      </trkpt>
      <trkpt lat="36.070410" lon="-119.039790">
        <ele>134.538</ele>
        <time>2018-12-29T00:01:20Z</time>
      </trkpt>
      <trkpt lat="36.069940" lon="-119.039750">
        <ele>134.786</ele>
        <time>2018-12-29T00:01:40Z</time>
      </trkpt>
      <trkpt lat="36.069550" lon="-119.039710">
        <ele>134.711</ele>
        <time>2018-12-29T00:02:00Z</time>
      </trkpt>
      <trkpt lat="36.069440" lon="-119.039700">
        <ele>134.711</ele>
        <time>2018-12-29T00:02:20Z</time>
      </trkpt>
      <trkpt lat="36.069180" lon="-119.039670">
        <ele>134.825</ele>
        <time>2018-12-29T00:02:40Z</time>
      </trkpt>
      <trkpt lat="36.068240" lon="-119.039560">
        <ele>134.828</ele>
        <time>2018-12-29T00:03:00Z</time>
      </trkpt>
      <trkpt lat="36.068020" lon="-119.039530">
        <ele>134.869</ele>
        <time>2018-12-29T00:03:20Z</time>
      </trkpt>
      <trkpt lat="36.067640" lon="-119.039500">
        <ele>134.852</ele>
        <time>2018-12-29T00:03:40Z</time>
      </trkpt>
      <trkpt lat="36.067370" lon="-119.039480">
        <ele>134.872</ele>
        <time>2018-12-29T00:04:00Z</time>
      </trkpt>
      <trkpt lat="36.067210" lon="-119.039480">
        <ele>134.813</ele>
        <time>2018-12-29T00:04:20Z</time>
      </trkpt>
      <trkpt lat="36.066950" lon="-119.039470">
        <ele>134.814</ele>
        <time>2018-12-29T00:04:40Z</time>
      </trkpt>
      <trkpt lat="36.066560" lon="-119.039470">
        <ele>134.708</ele>
        <time>2018-12-29T00:05:00Z</time>
      </trkpt>
      <trkpt lat="36.066130" lon="-119.039480">
        <ele>134.720</ele>
        <time>2018-12-29T00:05:20Z</time>
      </trkpt>
      <trkpt lat="36.065950" lon="-119.039480">
        <ele>134.728</ele>
        <time>2018-12-29T00:05:40Z</time>
      </trkpt>
      <trkpt lat="36.065760" lon="-119.039490">
        <ele>134.643</ele>
        <time>2018-12-29T00:06:00Z</time>
      </trkpt>
      <trkpt lat="36.065520" lon="-119.039490">
        <ele>134.653</ele>
        <time>2018-12-29T00:06:20Z</time>
      </trkpt>
      <trkpt lat="36.064640" lon="-119.039480">
        <ele>134.627</ele>
        <time>2018-12-29T00:06:40Z</time>
      </trkpt>
      <trkpt lat="36.064390" lon="-119.039480">
        <ele>134.550</ele>
        <time>2018-12-29T00:07:00Z</time>
      </trkpt>
      <trkpt lat="36.063890" lon="-119.039480">
        <ele>134.561</ele>
        <time>2018-12-29T00:07:20Z</time>
      </trkpt>
      <trkpt lat="36.063450" lon="-119.039480">
        <ele>134.684</ele>
        <time>2018-12-29T00:07:40Z</time>
      </trkpt>
      <trkpt lat="36.062830" lon="-119.039480">
        <ele>134.693</ele>
        <time>2018-12-29T00:08:00Z</time>
      </trkpt>
      <trkpt lat="36.062560" lon="-119.039480">
        <ele>134.765</ele>
        <time>2018-12-29T00:08:20Z</time>
      </trkpt>
      <trkpt lat="36.062010" lon="-119.039480">
        <ele>134.821</ele>
        <time>2018-12-29T00:08:40Z</time>
      </trkpt>
      <trkpt lat="36.061490" lon="-119.039480">
        <ele>134.908</ele>
        <time>2018-12-29T00:09:00Z</time>
      </trkpt>
      <trkpt lat="36.060950" lon="-119.039490">
        <ele>134.932</ele>
        <time>2018-12-29T00:09:20Z</time>
      </trkpt>
      <trkpt lat="36.059840" lon="-119.039490">
        <ele>133.230</ele>
        <time>2018-12-29T00:09:40Z</time>
      </trkpt>
      <trkpt lat="36.059240" lon="-119.039490">
        <ele>134.335</ele>
        <time>2018-12-29T00:10:00Z</time>
      </trkpt>
      <trkpt lat="36.058590" lon="-119.039490">
        <ele>134.825</ele>
        <time>2018-12-29T00:10:20Z</time>
      </trkpt>
      <trkpt lat="36.057610" lon="-119.039490">
        <ele>134.949</ele>
        <time>2018-12-29T00:10:40Z</time>
      </trkpt>
      <trkpt lat="36.057100" lon="-119.039490">
        <ele>134.862</ele>
        <time>2018-12-29T00:11:00Z</time>
      </trkpt>
      <trkpt lat="36.056420" lon="-119.039460">
        <ele>134.813</ele>
        <time>2018-12-29T00:11:20Z</time>
      </trkpt>
      <trkpt lat="36.056080" lon="-119.039440">
        <ele>134.886</ele>
        <time>2018-12-29T00:11:40Z</time>
      </trkpt>
      <trkpt lat="36.055050" lon="-119.039340">
        <ele>134.474</ele>
        <time>2018-12-29T00:12:00Z</time>
      </trkpt>
      <trkpt lat="36.054050" lon="-119.039240">
        <ele>133.456</ele>
        <time>2018-12-29T00:12:20Z</time>
      </trkpt>
      <trkpt lat="36.053250" lon="-119.039170">
        <ele>133.321</ele>
        <time>2018-12-29T00:12:40Z</time>
      </trkpt>
      <trkpt lat="36.052530" lon="-119.039140">
        <ele>133.608</ele>
        <time>2018-12-29T00:13:00Z</time>
      </trkpt>
      <trkpt lat="36.052020" lon="-119.039130">
        <ele>133.840</ele>
        <time>2018-12-29T00:13:20Z</time>
      </trkpt>
      <trkpt lat="36.051130" lon="-119.039130">
        <ele>134.278</ele>
        <time>2018-12-29T00:13:40Z</time>
      </trkpt>
      <trkpt lat="36.050400" lon="-119.039160">
        <ele>134.813</ele>
        <time>2018-12-29T00:14:00Z</time>
      </trkpt>
      <trkpt lat="36.049760" lon="-119.039200">
        <ele>135.043</ele>
        <time>2018-12-29T00:14:20Z</time>
      </trkpt>
      <trkpt lat="36.049210" lon="-119.039250">
        <ele>135.197</ele>
        <time>2018-12-29T00:14:40Z</time>
      </trkpt>
      <trkpt lat="36.048980" lon="-119.039280">
        <ele>135.130</ele>
        <time>2018-12-29T00:15:00Z</time>
      </trkpt>
      <trkpt lat="36.048680" lon="-119.039310">
        <ele>135.121</ele>
        <time>2018-12-29T00:15:20Z</time>
      </trkpt>
      <trkpt lat="36.047330" lon="-119.039480">
        <ele>135.344</ele>
        <time>2018-12-29T00:15:40Z</time>
      </trkpt>
      <trkpt lat="36.046720" lon="-119.039550">
        <ele>135.455</ele>
        <time>2018-12-29T00:16:00Z</time>
      </trkpt>
      <trkpt lat="36.046090" lon="-119.039610">
        <ele>135.607</ele>
        <time>2018-12-29T00:16:20Z</time>
      </trkpt>
      <trkpt lat="36.045520" lon="-119.039640">
        <ele>135.717</ele>
        <time>2018-12-29T00:16:40Z</time>
      </trkpt>
      <trkpt lat="36.044610" lon="-119.039670">
        <ele>136.208</ele>
        <time>2018-12-29T00:17:00Z</time>
      </trkpt>
      <trkpt lat="36.043740" lon="-119.039700">
        <ele>136.428</ele>
        <time>2018-12-29T00:17:20Z</time>
      </trkpt>
      <trkpt lat="36.042790" lon="-119.039710">
        <ele>137.326</ele>
        <time>2018-12-29T00:17:40Z</time>
      </trkpt>
      <trkpt lat="36.042550" lon="-119.039710">
        <ele>137.751</ele>
        <time>2018-12-29T00:18:00Z</time>
      </trkpt>
      <trkpt lat="36.039140" lon="-119.039770">
        <ele>138.581</ele>
        <time>2018-12-29T00:18:20Z</time>
      </trkpt>
      <trkpt lat="36.038310" lon="-119.039770">
        <ele>138.555</ele>
        <time>2018-12-29T00:18:40Z</time>
      </trkpt>
      <trkpt lat="36.036880" lon="-119.039800">
        <ele>138.598</ele>
        <time>2018-12-29T00:19:00Z</time>
      </trkpt>
      <trkpt lat="36.036740" lon="-119.039800">
        <ele>138.659</ele>
        <time>2018-12-29T00:19:20Z</time>
      </trkpt>
      <trkpt lat="36.036170" lon="-119.039810">
        <ele>139.132</ele>
        <time>2018-12-29T00:19:40Z</time>
      </trkpt>
      <trkpt lat="36.035290" lon="-119.039820">
        <ele>139.681</ele>
        <time>2018-12-29T00:20:00Z</time>
      </trkpt>
      <trkpt lat="36.034440" lon="-119.039810">
        <ele>139.761</ele>
        <time>2018-12-29T00:20:20Z</time>
      </trkpt>
      <trkpt lat="36.032910" lon="-119.039830">
        <ele>139.517</ele>
        <time>2018-12-29T00:20:40Z</time>
      </trkpt>
      <trkpt lat="36.032120" lon="-119.039840">
        <ele>139.408</ele>
        <time>2018-12-29T00:21:00Z</time>
      </trkpt>
      <trkpt lat="36.031200" lon="-119.039850">
        <ele>139.661</ele>
        <time>2018-12-29T00:21:20Z</time>
      </trkpt>
      <trkpt lat="36.030490" lon="-119.039850">
        <ele>140.139</ele>
        <time>2018-12-29T00:21:40Z</time>
      </trkpt>
      <trkpt lat="36.029790" lon="-119.039850">
        <ele>140.524</ele>
        <time>2018-12-29T00:22:00Z</time>
      </trkpt>
      <trkpt lat="36.029250" lon="-119.039870">
        <ele>140.664</ele>
        <time>2018-12-29T00:22:20Z</time>
      </trkpt>
      <trkpt lat="36.028530" lon="-119.039870">
        <ele>140.518</ele>
        <time>2018-12-29T00:22:40Z</time>
      </trkpt>
      <trkpt lat="36.026350" lon="-119.039890">
        <ele>140.881</ele>
        <time>2018-12-29T00:23:00Z</time>
      </trkpt>
      <trkpt lat="36.022230" lon="-119.039920">
        <ele>141.492</ele>
        <time>2018-12-29T00:23:20Z</time>
      </trkpt>
      <trkpt lat="36.021410" lon="-119.039930">
        <ele>141.295</ele>
        <time>2018-12-29T00:23:40Z</time>
      </trkpt>
      <trkpt lat="36.020530" lon="-119.039940">
        <ele>141.574</ele>
        <time>2018-12-29T00:24:00Z</time>
      </trkpt>
      <trkpt lat="36.019430" lon="-119.039940">
        <ele>142.156</ele>
        <time>2018-12-29T00:24:20Z</time>
      </trkpt>
      <trkpt lat="36.018770" lon="-119.039960">
        <ele>142.121</ele>
        <time>2018-12-29T00:24:40Z</time>
      </trkpt>
      <trkpt lat="36.017870" lon="-119.039960">
        <ele>142.208</ele>
        <time>2018-12-29T00:25:00Z</time>
      </trkpt>
      <trkpt lat="36.015210" lon="-119.039980">
        <ele>142.730</ele>
        <time>2018-12-29T00:25:20Z</time>
      </trkpt>
      <trkpt lat="36.014990" lon="-119.039990">
        <ele>142.788</ele>
        <time>2018-12-29T00:25:40Z</time>
      </trkpt>
      <trkpt lat="36.013820" lon="-119.039990">
        <ele>142.633</ele>
        <time>2018-12-29T00:26:00Z</time>
      </trkpt>
      <trkpt lat="36.012010" lon="-119.039970">
        <ele>142.473</ele>
        <time>2018-12-29T00:26:20Z</time>
      </trkpt>
      <trkpt lat="36.011190" lon="-119.039930">
        <ele>142.497</ele>
        <time>2018-12-29T00:26:40Z</time>
      </trkpt>
      <trkpt lat="36.009610" lon="-119.039850">
        <ele>142.810</ele>
        <time>2018-12-29T00:27:00Z</time>
      </trkpt>
      <trkpt lat="36.009430" lon="-119.039790">
        <ele>142.761</ele>
        <time>2018-12-29T00:27:20Z</time>
      </trkpt>
      <trkpt lat="36.007570" lon="-119.039750">
        <ele>141.184</ele>
        <time>2018-12-29T00:27:40Z</time>
      </trkpt>
      <trkpt lat="36.006780" lon="-119.039750">
        <ele>142.281</ele>
        <time>2018-12-29T00:28:00Z</time>
      </trkpt>
      <trkpt lat="36.006390" lon="-119.039780">
        <ele>141.961</ele>
        <time>2018-12-29T00:28:20Z</time>
      </trkpt>
      <trkpt lat="36.006020" lon="-119.039790">
        <ele>141.217</ele>
        <time>2018-12-29T00:28:40Z</time>
      </trkpt>
      <trkpt lat="36.005730" lon="-119.039820">
        <ele>140.908</ele>
        <time>2018-12-29T00:29:00Z</time>
      </trkpt>
      <trkpt lat="36.005480" lon="-119.039850">
        <ele>141.711</ele>
        <time>2018-12-29T00:29:20Z</time>
      </trkpt>
      <trkpt lat="36.005200" lon="-119.039890">
        <ele>142.579</ele>
        <time>2018-12-29T00:29:40Z</time>
      </trkpt>
      <trkpt lat="36.004980" lon="-119.039930">
        <ele>142.724</ele>
        <time>2018-12-29T00:30:00Z</time>
      </trkpt>
      <trkpt lat="36.004440" lon="-119.040040">
        <ele>142.834</ele>
        <time>2018-12-29T00:30:20Z</time>
      </trkpt>
      <trkpt lat="36.004040" lon="-119.040130">
        <ele>142.868</ele>
        <time>2018-12-29T00:30:40Z</time>
      </trkpt>
      <trkpt lat="36.003870" lon="-119.040180">
        <ele>142.931</ele>
        <time>2018-12-29T00:31:00Z</time>
      </trkpt>
      <trkpt lat="36.003680" lon="-119.040230">
        <ele>142.992</ele>
        <time>2018-12-29T00:31:20Z</time>
      </trkpt>
      <trkpt lat="36.003270" lon="-119.040360">
        <ele>142.925</ele>
        <time>2018-12-29T00:31:40Z</time>
      </trkpt>
      <trkpt lat="36.002890" lon="-119.040500">
        <ele>142.425</ele>
        <time>2018-12-29T00:32:00Z</time>
      </trkpt>
      <trkpt lat="36.002560" lon="-119.040630">
        <ele>142.326</ele>
        <time>2018-12-29T00:32:20Z</time>
      </trkpt>
      <trkpt lat="36.002210" lon="-119.040780">
        <ele>142.408</ele>
        <time>2018-12-29T00:32:40Z</time>
      </trkpt>
      <trkpt lat="36.001900" lon="-119.040930">
        <ele>142.308</ele>
        <time>2018-12-29T00:33:00Z</time>
      </trkpt>
      <trkpt lat="36.001570" lon="-119.041090">
        <ele>141.945</ele>
        <time>2018-12-29T00:33:20Z</time>
      </trkpt>
      <trkpt lat="36.001320" lon="-119.041230">
        <ele>141.443</ele>
        <time>2018-12-29T00:33:40Z</time>
      </trkpt>
      <trkpt lat="36.001070" lon="-119.041370">
        <ele>140.948</ele>
        <time>2018-12-29T00:34:00Z</time>
      </trkpt>
      <trkpt lat="36.000630" lon="-119.041630">
        <ele>140.628</ele>
        <time>2018-12-29T00:34:20Z</time>
      </trkpt>
      <trkpt lat="36.000530" lon="-119.041690">
        <ele>140.972</ele>
        <time>2018-12-29T00:34:40Z</time>
      </trkpt>
      <trkpt lat="36.000160" lon="-119.041910">
        <ele>142.025</ele>
        <time>2018-12-29T00:35:00Z</time>
      </trkpt>
      <trkpt lat="35.999910" lon="-119.042060">
        <ele>142.426</ele>
        <time>2018-12-29T00:35:20Z</time>
      </trkpt>
      <trkpt lat="35.999800" lon="-119.042120">
        <ele>142.439</ele>
        <time>2018-12-29T00:35:40Z</time>
      </trkpt>
      <trkpt lat="35.999290" lon="-119.042430">
        <ele>141.691</ele>
        <time>2018-12-29T00:36:00Z</time>
      </trkpt>
      <trkpt lat="35.998720" lon="-119.042780">
        <ele>139.781</ele>
        <time>2018-12-29T00:36:20Z</time>
      </trkpt>
      <trkpt lat="35.998010" lon="-119.043200">
        <ele>141.219</ele>
        <time>2018-12-29T00:36:40Z</time>
      </trkpt>
      <trkpt lat="35.997430" lon="-119.043550">
        <ele>141.208</ele>
        <time>2018-12-29T00:37:00Z</time>
      </trkpt>
      <trkpt lat="35.996830" lon="-119.043900">
        <ele>141.922</ele>
        <time>2018-12-29T00:37:20Z</time>
      </trkpt>
      <trkpt lat="35.996230" lon="-119.044260">
        <ele>142.560</ele>
        <time>2018-12-29T00:37:40Z</time>
      </trkpt>
      <trkpt lat="35.995830" lon="-119.044510">
        <ele>141.925</ele>
        <time>2018-12-29T00:38:00Z</time>
      </trkpt>
      <trkpt lat="35.995270" lon="-119.044850">
        <ele>139.655</ele>
        <time>2018-12-29T00:38:20Z</time>
      </trkpt>
      <trkpt lat="35.994900" lon="-119.045080">
        <ele>138.079</ele>
        <time>2018-12-29T00:38:40Z</time>
      </trkpt>
      <trkpt lat="35.994490" lon="-119.045320">
        <ele>139.532</ele>
        <time>2018-12-29T00:39:00Z</time>
      </trkpt>
      <trkpt lat="35.993970" lon="-119.045620">
        <ele>140.953</ele>
        <time>2018-12-29T00:39:20Z</time>
      </trkpt>
      <trkpt lat="35.993660" lon="-119.045820">
        <ele>138.466</ele>
        <time>2018-12-29T00:39:40Z</time>
      </trkpt>
      <trkpt lat="35.993240" lon="-119.046080">
        <ele>137.725</ele>
        <time>2018-12-29T00:40:00Z</time>
      </trkpt>
      <trkpt lat="35.992750" lon="-119.046370">
        <ele>137.526</ele>
        <time>2018-12-29T00:40:20Z</time>
      </trkpt>
      <trkpt lat="35.992070" lon="-119.046780">
        <ele>137.608</ele>
        <time>2018-12-29T00:40:40Z</time>
      </trkpt>
      <trkpt lat="35.991040" lon="-119.047400">
        <ele>137.608</ele>
        <time>2018-12-29T00:41:00Z</time>
      </trkpt>
      <trkpt lat="35.990200" lon="-119.047910">
        <ele>137.895</ele>
        <time>2018-12-29T00:41:20Z</time>
      </trkpt>
      <trkpt lat="35.989950" lon="-119.048060">
        <ele>138.193</ele>
        <time>2018-12-29T00:41:40Z</time>
      </trkpt>
      <trkpt lat="35.989380" lon="-119.048390">
        <ele>141.378</ele>
        <time>2018-12-29T00:42:00Z</time>
      </trkpt>
      <trkpt lat="35.988560" lon="-119.048880">
        <ele>141.798</ele>
        <time>2018-12-29T00:42:20Z</time>
      </trkpt>
      <trkpt lat="35.987850" lon="-119.049310">
        <ele>141.552</ele>
        <time>2018-12-29T00:42:40Z</time>
      </trkpt>
      <trkpt lat="35.985970" lon="-119.050460">
        <ele>140.755</ele>
        <time>2018-12-29T00:43:00Z</time>
      </trkpt>
      <trkpt lat="35.985790" lon="-119.050580">
        <ele>140.646</ele>
        <time>2018-12-29T00:43:20Z</time>
      </trkpt>
      <trkpt lat="35.985510" lon="-119.050740">
        <ele>140.519</ele>
        <time>2018-12-29T00:43:40Z</time>
      </trkpt>
      <trkpt lat="35.985330" lon="-119.050850">
        <ele>140.457</ele>
        <time>2018-12-29T00:44:00Z</time>
      </trkpt>
      <trkpt lat="35.985150" lon="-119.050960">
        <ele>140.300</ele>
        <time>2018-12-29T00:44:20Z</time>
      </trkpt>
      <trkpt lat="35.984920" lon="-119.051100">
        <ele>140.220</ele>
        <time>2018-12-29T00:44:40Z</time>
      </trkpt>
      <trkpt lat="35.984760" lon="-119.051200">
        <ele>140.108</ele>
        <time>2018-12-29T00:45:00Z</time>
      </trkpt>
      <trkpt lat="35.984530" lon="-119.051330">
        <ele>140.178</ele>
        <time>2018-12-29T00:45:20Z</time>
      </trkpt>
      <trkpt lat="35.984280" lon="-119.051490">
        <ele>140.036</ele>
        <time>2018-12-29T00:45:40Z</time>
      </trkpt>
      <trkpt lat="35.984050" lon="-119.051620">
        <ele>140.081</ele>
        <time>2018-12-29T00:46:00Z</time>
      </trkpt>
      <trkpt lat="35.983880" lon="-119.051720">
        <ele>139.981</ele>
        <time>2018-12-29T00:46:20Z</time>
      </trkpt>
      <trkpt lat="35.983700" lon="-119.051830">
        <ele>139.985</ele>
        <time>2018-12-29T00:46:40Z</time>
      </trkpt>
      <trkpt lat="35.983570" lon="-119.051910">
        <ele>139.888</ele>
        <time>2018-12-29T00:47:00Z</time>
      </trkpt>
      <trkpt lat="35.983420" lon="-119.051990">
        <ele>139.879</ele>
        <time>2018-12-29T00:47:20Z</time>
      </trkpt>
      <trkpt lat="35.983300" lon="-119.052060">
        <ele>139.712</ele>
        <time>2018-12-29T00:47:40Z</time>
      </trkpt>
      <trkpt lat="35.983110" lon="-119.052160">
        <ele>139.776</ele>
        <time>2018-12-29T00:48:00Z</time>
      </trkpt>
      <trkpt lat="35.983010" lon="-119.052220">
        <ele>139.690</ele>
        <time>2018-12-29T00:48:20Z</time>
      </trkpt>
      <trkpt lat="35.982880" lon="-119.052280">
        <ele>139.519</ele>
        <time>2018-12-29T00:48:40Z</time>
      </trkpt>
      <trkpt lat="35.982670" lon="-119.052390">
        <ele>139.308</ele>
        <time>2018-12-29T00:49:00Z</time>
      </trkpt>
      <trkpt lat="35.982540" lon="-119.052440">
        <ele>139.270</ele>
        <time>2018-12-29T00:49:20Z</time>
      </trkpt>
      <trkpt lat="35.982430" lon="-119.052490">
        <ele>139.188</ele>
        <time>2018-12-29T00:49:40Z</time>
      </trkpt>
      <trkpt lat="35.982270" lon="-119.052570">
        <ele>138.823</ele>
        <time>2018-12-29T00:50:00Z</time>
      </trkpt>
      <trkpt lat="35.982120" lon="-119.052630">
        <ele>138.643</ele>
        <time>2018-12-29T00:50:20Z</time>
      </trkpt>
      <trkpt lat="35.982030" lon="-119.052670">
        <ele>138.577</ele>
        <time>2018-12-29T00:50:40Z</time>
      </trkpt>
      <trkpt lat="35.981930" lon="-119.052710">
        <ele>138.480</ele>
        <time>2018-12-29T00:51:00Z</time>
      </trkpt>
      <trkpt lat="35.981830" lon="-119.052750">
        <ele>138.321</ele>
        <time>2018-12-29T00:51:20Z</time>
      </trkpt>
      <trkpt lat="35.981710" lon="-119.052790">
        <ele>137.654</ele>
        <time>2018-12-29T00:51:40Z</time>
      </trkpt>
      <trkpt lat="35.981600" lon="-119.052830">
        <ele>136.848</ele>
        <time>2018-12-29T00:52:00Z</time>
      </trkpt>
      <trkpt lat="35.981450" lon="-119.052870">
        <ele>135.961</ele>
        <time>2018-12-29T00:52:20Z</time>
      </trkpt>
      <trkpt lat="35.981160" lon="-119.052970">
        <ele>134.717</ele>
        <time>2018-12-29T00:52:40Z</time>
      </trkpt>
      <trkpt lat="35.980980" lon="-119.053020">
        <ele>134.608</ele>
        <time>2018-12-29T00:53:00Z</time>
      </trkpt>
      <trkpt lat="35.980780" lon="-119.053080">
        <ele>134.517</ele>
        <time>2018-12-29T00:53:20Z</time>
      </trkpt>
      <trkpt lat="35.980620" lon="-119.053130">
        <ele>134.465</ele>
        <time>2018-12-29T00:53:40Z</time>
      </trkpt>
      <trkpt lat="35.980360" lon="-119.053200">
        <ele>134.360</ele>
        <time>2018-12-29T00:54:00Z</time>
      </trkpt>
      <trkpt lat="35.980230" lon="-119.053220">
        <ele>134.390</ele>
        <time>2018-12-29T00:54:20Z</time>
      </trkpt>
      <trkpt lat="35.980080" lon="-119.053250">
        <ele>134.314</ele>
        <time>2018-12-29T00:54:40Z</time>
      </trkpt>
      <trkpt lat="35.979910" lon="-119.053290">
        <ele>134.497</ele>
        <time>2018-12-29T00:55:00Z</time>
      </trkpt>
      <trkpt lat="35.979780" lon="-119.053320">
        <ele>134.588</ele>
        <time>2018-12-29T00:55:20Z</time>
      </trkpt>
      <trkpt lat="35.979710" lon="-119.053330">
        <ele>134.781</ele>
        <time>2018-12-29T00:55:40Z</time>
      </trkpt>
      <trkpt lat="35.979620" lon="-119.053350">
        <ele>134.886</ele>
        <time>2018-12-29T00:56:00Z</time>
      </trkpt>
      <trkpt lat="35.979280" lon="-119.053410">
        <ele>135.960</ele>
        <time>2018-12-29T00:56:20Z</time>
      </trkpt>
      <trkpt lat="35.979140" lon="-119.053430">
        <ele>136.526</ele>
        <time>2018-12-29T00:56:40Z</time>
      </trkpt>
      <trkpt lat="35.979010" lon="-119.053450">
        <ele>137.008</ele>
        <time>2018-12-29T00:57:00Z</time>
      </trkpt>
      <trkpt lat="35.978880" lon="-119.053460">
        <ele>137.371</ele>
        <time>2018-12-29T00:57:20Z</time>
      </trkpt>
      <trkpt lat="35.978730" lon="-119.053480">
        <ele>137.529</ele>
        <time>2018-12-29T00:57:40Z</time>
      </trkpt>
      <trkpt lat="35.978520" lon="-119.053500">
        <ele>137.514</ele>
        <time>2018-12-29T00:58:00Z</time>
      </trkpt>
      <trkpt lat="35.978330" lon="-119.053510">
        <ele>137.684</ele>
        <time>2018-12-29T00:58:20Z</time>
      </trkpt>
      <trkpt lat="35.978150" lon="-119.053520">
        <ele>137.698</ele>
        <time>2018-12-29T00:58:40Z</time>
      </trkpt>
      <trkpt lat="35.976480" lon="-119.053540">
        <ele>139.381</ele>
        <time>2018-12-29T00:59:00Z</time>
      </trkpt>
      <trkpt lat="35.975310" lon="-119.053550">
        <ele>139.982</ele>
        <time>2018-12-29T00:59:20Z</time>
      </trkpt>
      <trkpt lat="35.974400" lon="-119.053550">
        <ele>139.845</ele>
        <time>2018-12-29T00:59:40Z</time>
      </trkpt>
      <trkpt lat="35.973350" lon="-119.053560">
        <ele>140.469</ele>
        <time>2018-12-29T01:00:00Z</time>
      </trkpt>
      <trkpt lat="35.972040" lon="-119.053570">
        <ele>141.004</ele>
        <time>2018-12-29T01:00:20Z</time>
      </trkpt>
      <trkpt lat="35.971540" lon="-119.053570">
        <ele>141.424</ele>
        <time>2018-12-29T01:00:40Z</time>
      </trkpt>
      <trkpt lat="35.971130" lon="-119.053570">
        <ele>141.408</ele>
        <time>2018-12-29T01:01:00Z</time>
      </trkpt>
      <trkpt lat="35.969830" lon="-119.053570">
        <ele>140.479</ele>
        <time>2018-12-29T01:01:20Z</time>
      </trkpt>
      <trkpt lat="35.968660" lon="-119.053590">
        <ele>141.997</ele>
        <time>2018-12-29T01:01:40Z</time>
      </trkpt>
      <trkpt lat="35.968140" lon="-119.053590">
        <ele>142.142</ele>
        <time>2018-12-29T01:02:00Z</time>
      </trkpt>
      <trkpt lat="35.967870" lon="-119.053590">
        <ele>141.962</ele>
        <time>2018-12-29T01:02:20Z</time>
      </trkpt>
      <trkpt lat="35.967220" lon="-119.053590">
        <ele>141.166</ele>
        <time>2018-12-29T01:02:40Z</time>
      </trkpt>
      <trkpt lat="35.966430" lon="-119.053590">
        <ele>141.639</ele>
        <time>2018-12-29T01:03:00Z</time>
      </trkpt>
      <trkpt lat="35.965520" lon="-119.053610">
        <ele>143.010</ele>
        <time>2018-12-29T01:03:20Z</time>
      </trkpt>
      <trkpt lat="35.964950" lon="-119.053610">
        <ele>143.693</ele>
        <time>2018-12-29T01:03:40Z</time>
      </trkpt>
      <trkpt lat="35.964270" lon="-119.053620">
        <ele>144.149</ele>
        <time>2018-12-29T01:04:00Z</time>
      </trkpt>
      <trkpt lat="35.962420" lon="-119.053630">
        <ele>142.802</ele>
        <time>2018-12-29T01:04:20Z</time>
      </trkpt>
      <trkpt lat="35.961370" lon="-119.053630">
        <ele>144.122</ele>
        <time>2018-12-29T01:04:40Z</time>
      </trkpt>
      <trkpt lat="35.960300" lon="-119.053630">
        <ele>143.208</ele>
        <time>2018-12-29T01:05:00Z</time>
      </trkpt>
      <trkpt lat="35.960140" lon="-119.053630">
        <ele>143.067</ele>
        <time>2018-12-29T01:05:20Z</time>
      </trkpt>
      <trkpt lat="35.959670" lon="-119.053640">
        <ele>143.755</ele>
        <time>2018-12-29T01:05:40Z</time>
      </trkpt>
      <trkpt lat="35.959100" lon="-119.053640">
        <ele>144.180</ele>
        <time>2018-12-29T01:06:00Z</time>
      </trkpt>
      <trkpt lat="35.958150" lon="-119.053650">
        <ele>144.120</ele>
        <time>2018-12-29T01:06:20Z</time>
      </trkpt>
      <trkpt lat="35.957750" lon="-119.053660">
        <ele>144.914</ele>
        <time>2018-12-29T01:06:40Z</time>
      </trkpt>
      <trkpt lat="35.956720" lon="-119.053660">
        <ele>146.147</ele>
        <time>2018-12-29T01:07:00Z</time>
      </trkpt>
      <trkpt lat="35.954880" lon="-119.053680">
        <ele>147.568</ele>
        <time>2018-12-29T01:07:20Z</time>
      </trkpt>
      <trkpt lat="35.953180" lon="-119.053700">
        <ele>148.321</ele>
        <time>2018-12-29T01:07:40Z</time>
      </trkpt>
      <trkpt lat="35.952010" lon="-119.053700">
        <ele>148.839</ele>
        <time>2018-12-29T01:08:00Z</time>
      </trkpt>
      <trkpt lat="35.950970" lon="-119.053710">
        <ele>149.201</ele>
        <time>2018-12-29T01:08:20Z</time>
      </trkpt>
      <trkpt lat="35.949620" lon="-119.053720">
        <ele>149.521</ele>
        <time>2018-12-29T01:08:40Z</time>
      </trkpt>
      <trkpt lat="35.948900" lon="-119.053720">
        <ele>149.808</ele>
        <time>2018-12-29T01:09:00Z</time>
      </trkpt>
      <trkpt lat="35.948500" lon="-119.053720">
        <ele>149.986</ele>
        <time>2018-12-29T01:09:20Z</time>
      </trkpt>
      <trkpt lat="35.947710" lon="-119.053710">
        <ele>149.514</ele>
        <time>2018-12-29T01:09:40Z</time>
      </trkpt>
      <trkpt lat="35.946690" lon="-119.053700">
        <ele>148.169</ele>
        <time>2018-12-29T01:10:00Z</time>
      </trkpt>
      <trkpt lat="35.945490" lon="-119.053690">
        <ele>147.929</ele>
        <time>2018-12-29T01:10:20Z</time>
      </trkpt>
      <trkpt lat="35.943940" lon="-119.053690">
        <ele>150.323</ele>
        <time>2018-12-29T01:10:40Z</time>
      </trkpt>
      <trkpt lat="35.942680" lon="-119.053680">
        <ele>150.476</ele>
        <time>2018-12-29T01:11:00Z</time>
      </trkpt>
      <trkpt lat="35.941340" lon="-119.053670">
        <ele>151.157</ele>
        <time>2018-12-29T01:11:20Z</time>
      </trkpt>
      <trkpt lat="35.939720" lon="-119.053660">
        <ele>151.460</ele>
        <time>2018-12-29T01:11:40Z</time>
      </trkpt>
      <trkpt lat="35.938240" lon="-119.053660">
        <ele>151.893</ele>
        <time>2018-12-29T01:12:00Z</time>
      </trkpt>
      <trkpt lat="35.937310" lon="-119.053660">
        <ele>152.165</ele>
        <time>2018-12-29T01:12:20Z</time>
      </trkpt>
      <trkpt lat="35.936500" lon="-119.053650">
        <ele>152.021</ele>
        <time>2018-12-29T01:12:40Z</time>
      </trkpt>
      <trkpt lat="35.936100" lon="-119.053650">
        <ele>151.508</ele>
        <time>2018-12-29T01:13:00Z</time>
      </trkpt>
      <trkpt lat="35.935220" lon="-119.053640">
        <ele>150.032</ele>
        <time>2018-12-29T01:13:20Z</time>
      </trkpt>
      <trkpt lat="35.934220" lon="-119.053640">
        <ele>150.910</ele>
        <time>2018-12-29T01:13:40Z</time>
      </trkpt>
      <trkpt lat="35.932900" lon="-119.053650">
        <ele>153.465</ele>
        <time>2018-12-29T01:14:00Z</time>
      </trkpt>
      <trkpt lat="35.932380" lon="-119.053640">
        <ele>153.185</ele>
        <time>2018-12-29T01:14:20Z</time>
      </trkpt>
      <trkpt lat="35.931340" lon="-119.053630">
        <ele>152.399</ele>
        <time>2018-12-29T01:14:40Z</time>
      </trkpt>
      <trkpt lat="35.930340" lon="-119.053620">
        <ele>150.912</ele>
        <time>2018-12-29T01:15:00Z</time>
      </trkpt>
      <trkpt lat="35.929410" lon="-119.053610">
        <ele>149.483</ele>
        <time>2018-12-29T01:15:20Z</time>
      </trkpt>
      <trkpt lat="35.928670" lon="-119.053600">
        <ele>152.056</ele>
        <time>2018-12-29T01:15:40Z</time>
      </trkpt>
      <trkpt lat="35.928080" lon="-119.053600">
        <ele>153.082</ele>
        <time>2018-12-29T01:16:00Z</time>
      </trkpt>
      <trkpt lat="35.927120" lon="-119.053590">
        <ele>153.043</ele>
        <time>2018-12-29T01:16:20Z</time>
      </trkpt>
      <trkpt lat="35.926580" lon="-119.053580">
        <ele>153.517</ele>
        <time>2018-12-29T01:16:40Z</time>
      </trkpt>
      <trkpt lat="35.926290" lon="-119.053580">
        <ele>153.608</ele>
        <time>2018-12-29T01:17:00Z</time>
      </trkpt>
      <trkpt lat="35.924730" lon="-119.053560">
        <ele>151.591</ele>
        <time>2018-12-29T01:17:20Z</time>
      </trkpt>
      <trkpt lat="35.924310" lon="-119.053560">
        <ele>151.239</ele>
        <time>2018-12-29T01:17:40Z</time>
      </trkpt>
      <trkpt lat="35.923960" lon="-119.053560">
        <ele>152.184</ele>
        <time>2018-12-29T01:18:00Z</time>
      </trkpt>
      <trkpt lat="35.923530" lon="-119.053570">
        <ele>153.914</ele>
        <time>2018-12-29T01:18:20Z</time>
      </trkpt>
      <trkpt lat="35.923210" lon="-119.053570">
        <ele>155.038</ele>
        <time>2018-12-29T01:18:40Z</time>
      </trkpt>
      <trkpt lat="35.922940" lon="-119.053570">
        <ele>155.761</ele>
        <time>2018-12-29T01:19:00Z</time>
      </trkpt>
      <trkpt lat="35.922730" lon="-119.053570">
        <ele>156.272</ele>
        <time>2018-12-29T01:19:20Z</time>
      </trkpt>
      <trkpt lat="35.922490" lon="-119.053570">
        <ele>156.615</ele>
        <time>2018-12-29T01:19:40Z</time>
      </trkpt>
      <trkpt lat="35.922300" lon="-119.053570">
        <ele>156.799</ele>
        <time>2018-12-29T01:20:00Z</time>
      </trkpt>
      <trkpt lat="35.922070" lon="-119.053570">
        <ele>156.607</ele>
        <time>2018-12-29T01:20:20Z</time>
      </trkpt>
      <trkpt lat="35.921480" lon="-119.053560">
        <ele>155.227</ele>
        <time>2018-12-29T01:20:40Z</time>
      </trkpt>
      <trkpt lat="35.921000" lon="-119.053560">
        <ele>154.808</ele>
        <time>2018-12-29T01:21:00Z</time>
      </trkpt>
      <trkpt lat="35.920710" lon="-119.053560">
        <ele>155.362</ele>
        <time>2018-12-29T01:21:20Z</time>
      </trkpt>
      <trkpt lat="35.920100" lon="-119.053560">
        <ele>156.460</ele>
        <time>2018-12-29T01:21:40Z</time>
      </trkpt>
      <trkpt lat="35.919680" lon="-119.053560">
        <ele>156.445</ele>
        <time>2018-12-29T01:22:00Z</time>
      </trkpt>
      <trkpt lat="35.919260" lon="-119.053560">
        <ele>156.215</ele>
        <time>2018-12-29T01:22:20Z</time>
      </trkpt>
      <trkpt lat="35.918910" lon="-119.053550">
        <ele>155.949</ele>
        <time>2018-12-29T01:22:40Z</time>
      </trkpt>
      <trkpt lat="35.918520" lon="-119.053550">
        <ele>155.762</ele>
        <time>2018-12-29T01:23:00Z</time>
      </trkpt>
      <trkpt lat="35.918150" lon="-119.053550">
        <ele>156.213</ele>
        <time>2018-12-29T01:23:20Z</time>
      </trkpt>
      <trkpt lat="35.917750" lon="-119.053550">
        <ele>156.666</ele>
        <time>2018-12-29T01:23:40Z</time>
      </trkpt>
      <trkpt lat="35.917270" lon="-119.053550">
        <ele>157.131</ele>
        <time>2018-12-29T01:24:00Z</time>
      </trkpt>
      <trkpt lat="35.916910" lon="-119.053550">
        <ele>157.361</ele>
        <time>2018-12-29T01:24:20Z</time>
      </trkpt>
      <trkpt lat="35.916540" lon="-119.053550">
        <ele>157.407</ele>
        <time>2018-12-29T01:24:40Z</time>
      </trkpt>
      <trkpt lat="35.914980" lon="-119.053550">
        <ele>158.108</ele>
        <time>2018-12-29T01:25:00Z</time>
      </trkpt>
      <trkpt lat="35.914520" lon="-119.053550">
        <ele>158.126</ele>
        <time>2018-12-29T01:25:20Z</time>
      </trkpt>
      <trkpt lat="35.914120" lon="-119.053540">
        <ele>157.564</ele>
        <time>2018-12-29T01:25:40Z</time>
      </trkpt>
      <trkpt lat="35.913720" lon="-119.053530">
        <ele>156.399</ele>
        <time>2018-12-29T01:26:00Z</time>
      </trkpt>
      <trkpt lat="35.912920" lon="-119.053530">
        <ele>155.469</ele>
        <time>2018-12-29T01:26:20Z</time>
      </trkpt>
      <trkpt lat="35.912440" lon="-119.053530">
        <ele>156.333</ele>
        <time>2018-12-29T01:26:40Z</time>
      </trkpt>
      <trkpt lat="35.911950" lon="-119.053530">
        <ele>157.666</ele>
        <time>2018-12-29T01:27:00Z</time>
      </trkpt>
      <trkpt lat="35.911880" lon="-119.053540">
        <ele>157.837</ele>
        <time>2018-12-29T01:27:20Z</time>
      </trkpt>
      <trkpt lat="35.911710" lon="-119.053580">
        <ele>158.020</ele>
        <time>2018-12-29T01:27:40Z</time>
      </trkpt>
      <trkpt lat="35.909960" lon="-119.053580">
        <ele>158.869</ele>
        <time>2018-12-29T01:28:00Z</time>
      </trkpt>
      <trkpt lat="35.908370" lon="-119.053580">
        <ele>159.704</ele>
        <time>2018-12-29T01:28:20Z</time>
      </trkpt>
      <trkpt lat="35.908300" lon="-119.053560">
        <ele>159.724</ele>
        <time>2018-12-29T01:28:40Z</time>
      </trkpt>
      <trkpt lat="35.908100" lon="-119.053560">
        <ele>159.708</ele>
        <time>2018-12-29T01:29:00Z</time>
      </trkpt>
      <trkpt lat="35.906710" lon="-119.053550">
        <ele>159.479</ele>
        <time>2018-12-29T01:29:20Z</time>
      </trkpt>
      <trkpt lat="35.905830" lon="-119.053550">
        <ele>161.257</ele>
        <time>2018-12-29T01:29:40Z</time>
      </trkpt>
      <trkpt lat="35.904850" lon="-119.053550">
        <ele>161.392</ele>
        <time>2018-12-29T01:30:00Z</time>
      </trkpt>
      <trkpt lat="35.903670" lon="-119.053550">
        <ele>161.482</ele>
        <time>2018-12-29T01:30:20Z</time>
      </trkpt>
      <trkpt lat="35.902050" lon="-119.053530">
        <ele>161.046</ele>
        <time>2018-12-29T01:30:40Z</time>
      </trkpt>
      <trkpt lat="35.901210" lon="-119.053530">
        <ele>160.359</ele>
        <time>2018-12-29T01:31:00Z</time>
      </trkpt>
      <trkpt lat="35.899800" lon="-119.053530">
        <ele>160.640</ele>
        <time>2018-12-29T01:31:20Z</time>
      </trkpt>
      <trkpt lat="35.899060" lon="-119.053520">
        <ele>160.783</ele>
        <time>2018-12-29T01:31:40Z</time>
      </trkpt>
      <trkpt lat="35.898500" lon="-119.053520">
        <ele>160.824</ele>
        <time>2018-12-29T01:32:00Z</time>
      </trkpt>
      <trkpt lat="35.897860" lon="-119.053520">
        <ele>161.104</ele>
        <time>2018-12-29T01:32:20Z</time>
      </trkpt>
      <trkpt lat="35.897450" lon="-119.053510">
        <ele>161.414</ele>
        <time>2018-12-29T01:32:40Z</time>
      </trkpt>
      <trkpt lat="35.896850" lon="-119.053520">
        <ele>162.308</ele>
        <time>2018-12-29T01:33:00Z</time>
      </trkpt>
      <trkpt lat="35.896310" lon="-119.053510">
        <ele>163.055</ele>
        <time>2018-12-29T01:33:20Z</time>
      </trkpt>
      <trkpt lat="35.895740" lon="-119.053510">
        <ele>163.473</ele>
        <time>2018-12-29T01:33:40Z</time>
      </trkpt>
      <trkpt lat="35.895200" lon="-119.053510">
        <ele>163.688</ele>
        <time>2018-12-29T01:34:00Z</time>
      </trkpt>
      <trkpt lat="35.893810" lon="-119.053500">
        <ele>163.588</ele>
        <time>2018-12-29T01:34:20Z</time>
      </trkpt>
      <trkpt lat="35.893230" lon="-119.053500">
        <ele>163.612</ele>
        <time>2018-12-29T01:34:40Z</time>
      </trkpt>
      <trkpt lat="35.893030" lon="-119.053500">
        <ele>163.645</ele>
        <time>2018-12-29T01:35:00Z</time>
      </trkpt>
      <trkpt lat="35.892610" lon="-119.053490">
        <ele>163.746</ele>
        <time>2018-12-29T01:35:20Z</time>
      </trkpt>
      <trkpt lat="35.891700" lon="-119.053480">
        <ele>164.099</ele>
        <time>2018-12-29T01:35:40Z</time>
      </trkpt>
      <trkpt lat="35.890550" lon="-119.053470">
        <ele>164.199</ele>
        <time>2018-12-29T01:36:00Z</time>
      </trkpt>
      <trkpt lat="35.889480" lon="-119.053480">
        <ele>164.107</ele>
        <time>2018-12-29T01:36:20Z</time>
      </trkpt>
      <trkpt lat="35.888410" lon="-119.053470">
        <ele>164.227</ele>
        <time>2018-12-29T01:36:40Z</time>
      </trkpt>
      <trkpt lat="35.887980" lon="-119.053470">
        <ele>164.208</ele>
        <time>2018-12-29T01:37:00Z</time>
      </trkpt>
      <trkpt lat="35.885710" lon="-119.053460">
        <ele>164.652</ele>
        <time>2018-12-29T01:37:20Z</time>
      </trkpt>
      <trkpt lat="35.884400" lon="-119.053450">
        <ele>163.820</ele>
        <time>2018-12-29T01:37:40Z</time>
      </trkpt>
      <trkpt lat="35.882680" lon="-119.053440">
        <ele>163.925</ele>
        <time>2018-12-29T01:38:00Z</time>
      </trkpt>
      <trkpt lat="35.882000" lon="-119.053440">
        <ele>164.535</ele>
        <time>2018-12-29T01:38:20Z</time>
      </trkpt>
      <trkpt lat="35.880430" lon="-119.053430">
        <ele>165.429</ele>
        <time>2018-12-29T01:38:40Z</time>
      </trkpt>
      <trkpt lat="35.879900" lon="-119.053430">
        <ele>165.362</ele>
        <time>2018-12-29T01:39:00Z</time>
      </trkpt>
      <trkpt lat="35.878710" lon="-119.053420">
        <ele>164.983</ele>
        <time>2018-12-29T01:39:20Z</time>
      </trkpt>
      <trkpt lat="35.877790" lon="-119.053410">
        <ele>165.666</ele>
        <time>2018-12-29T01:39:40Z</time>
      </trkpt>
      <trkpt lat="35.877390" lon="-119.053420">
        <ele>166.316</ele>
        <time>2018-12-29T01:40:00Z</time>
      </trkpt>
      <trkpt lat="35.877130" lon="-119.053420">
        <ele>166.776</ele>
        <time>2018-12-29T01:40:20Z</time>
      </trkpt>
      <trkpt lat="35.876780" lon="-119.053420">
        <ele>167.013</ele>
        <time>2018-12-29T01:40:40Z</time>
      </trkpt>
      <trkpt lat="35.876480" lon="-119.053420">
        <ele>167.008</ele>
        <time>2018-12-29T01:41:00Z</time>
      </trkpt>
      <trkpt lat="35.875960" lon="-119.053420">
        <ele>166.394</ele>
        <time>2018-12-29T01:41:20Z</time>
      </trkpt>
      <trkpt lat="35.874950" lon="-119.053430">
        <ele>165.462</ele>
        <time>2018-12-29T01:41:40Z</time>
      </trkpt>
      <trkpt lat="35.874550" lon="-119.053430">
        <ele>165.637</ele>
        <time>2018-12-29T01:42:00Z</time>
      </trkpt>
      <trkpt lat="35.874230" lon="-119.053430">
        <ele>165.757</ele>
        <time>2018-12-29T01:42:20Z</time>
      </trkpt>
      <trkpt lat="35.873920" lon="-119.053440">
        <ele>165.921</ele>
        <time>2018-12-29T01:42:40Z</time>
      </trkpt>
      <trkpt lat="35.873530" lon="-119.053440">
        <ele>166.074</ele>
        <time>2018-12-29T01:43:00Z</time>
      </trkpt>
      <trkpt lat="35.872820" lon="-119.053450">
        <ele>165.915</ele>
        <time>2018-12-29T01:43:20Z</time>
      </trkpt>
      <trkpt lat="35.872470" lon="-119.053450">
        <ele>165.728</ele>
        <time>2018-12-29T01:43:40Z</time>
      </trkpt>
      <trkpt lat="35.872250" lon="-119.053440">
        <ele>165.521</ele>
        <time>2018-12-29T01:44:00Z</time>
      </trkpt>
      <trkpt lat="35.872020" lon="-119.053440">
        <ele>165.441</ele>
        <time>2018-12-29T01:44:20Z</time>
      </trkpt>
      <trkpt lat="35.871820" lon="-119.053430">
        <ele>165.305</ele>
        <time>2018-12-29T01:44:40Z</time>
      </trkpt>
      <trkpt lat="35.871560" lon="-119.053400">
        <ele>165.208</ele>
        <time>2018-12-29T01:45:00Z</time>
      </trkpt>
      <trkpt lat="35.871370" lon="-119.053380">
        <ele>165.385</ele>
        <time>2018-12-29T01:45:20Z</time>
      </trkpt>
      <trkpt lat="35.871150" lon="-119.053340">
        <ele>165.513</ele>
        <time>2018-12-29T01:45:40Z</time>
      </trkpt>
      <trkpt lat="35.870890" lon="-119.053290">
        <ele>166.018</ele>
        <time>2018-12-29T01:46:00Z</time>
      </trkpt>
      <trkpt lat="35.870760" lon="-119.053270">
        <ele>166.658</ele>
        <time>2018-12-29T01:46:20Z</time>
      </trkpt>
      <trkpt lat="35.870570" lon="-119.053220">
        <ele>166.972</ele>
        <time>2018-12-29T01:46:40Z</time>
      </trkpt>
      <trkpt lat="35.870360" lon="-119.053160">
        <ele>166.775</ele>
        <time>2018-12-29T01:47:00Z</time>
      </trkpt>
      <trkpt lat="35.869990" lon="-119.053030">
        <ele>166.346</ele>
        <time>2018-12-29T01:47:20Z</time>
      </trkpt>
      <trkpt lat="35.869740" lon="-119.052940">
        <ele>165.959</ele>
        <time>2018-12-29T01:47:40Z</time>
      </trkpt>
      <trkpt lat="35.869210" lon="-119.052720">
        <ele>165.757</ele>
        <time>2018-12-29T01:48:00Z</time>
      </trkpt>
      <trkpt lat="35.868950" lon="-119.052620">
        <ele>165.800</ele>
        <time>2018-12-29T01:48:20Z</time>
      </trkpt>
      <trkpt lat="35.868790" lon="-119.052560">
        <ele>165.820</ele>
        <time>2018-12-29T01:48:40Z</time>
      </trkpt>
      <trkpt lat="35.868450" lon="-119.052430">
        <ele>165.908</ele>
        <time>2018-12-29T01:49:00Z</time>
      </trkpt>
      <trkpt lat="35.868310" lon="-119.052390">
        <ele>166.228</ele>
        <time>2018-12-29T01:49:20Z</time>
      </trkpt>
      <trkpt lat="35.868090" lon="-119.052330">
        <ele>166.466</ele>
        <time>2018-12-29T01:49:40Z</time>
      </trkpt>
      <trkpt lat="35.867950" lon="-119.052290">
        <ele>166.291</ele>
        <time>2018-12-29T01:50:00Z</time>
      </trkpt>
      <trkpt lat="35.867830" lon="-119.052260">
        <ele>165.771</ele>
        <time>2018-12-29T01:50:20Z</time>
      </trkpt>
      <trkpt lat="35.867760" lon="-119.052240">
        <ele>165.475</ele>
        <time>2018-12-29T01:50:40Z</time>
      </trkpt>
      <trkpt lat="35.867690" lon="-119.052230">
        <ele>165.038</ele>
        <time>2018-12-29T01:51:00Z</time>
      </trkpt>
      <trkpt lat="35.867590" lon="-119.052210">
        <ele>165.239</ele>
        <time>2018-12-29T01:51:20Z</time>
      </trkpt>
      <trkpt lat="35.867520" lon="-119.052200">
        <ele>165.922</ele>
        <time>2018-12-29T01:51:40Z</time>
      </trkpt>
      <trkpt lat="35.867230" lon="-119.052180">
        <ele>167.574</ele>
        <time>2018-12-29T01:52:00Z</time>
      </trkpt>
      <trkpt lat="35.867110" lon="-119.052170">
        <ele>167.656</ele>
        <time>2018-12-29T01:52:20Z</time>
      </trkpt>
      <trkpt lat="35.867000" lon="-119.052160">
        <ele>167.521</ele>
        <time>2018-12-29T01:52:40Z</time>
      </trkpt>
      <trkpt lat="35.866860" lon="-119.052150">
        <ele>167.408</ele>
        <time>2018-12-29T01:53:00Z</time>
      </trkpt>
      <trkpt lat="35.866600" lon="-119.052140">
        <ele>166.590</ele>
        <time>2018-12-29T01:53:20Z</time>
      </trkpt>
      <trkpt lat="35.866400" lon="-119.052140">
        <ele>165.088</ele>
        <time>2018-12-29T01:53:40Z</time>
      </trkpt>
      <trkpt lat="35.866130" lon="-119.052140">
        <ele>162.193</ele>
        <time>2018-12-29T01:54:00Z</time>
      </trkpt>
      <trkpt lat="35.866000" lon="-119.052150">
        <ele>160.453</ele>
        <time>2018-12-29T01:54:20Z</time>
      </trkpt>
      <trkpt lat="35.865760" lon="-119.052160">
        <ele>156.657</ele>
        <time>2018-12-29T01:54:40Z</time>
      </trkpt>
      <trkpt lat="35.865650" lon="-119.052170">
        <ele>155.610</ele>
        <time>2018-12-29T01:55:00Z</time>
      </trkpt>
      <trkpt lat="35.865560" lon="-119.052190">
        <ele>155.811</ele>
        <time>2018-12-29T01:55:20Z</time>
      </trkpt>
      <trkpt lat="35.865380" lon="-119.052230">
        <ele>155.814</ele>
        <time>2018-12-29T01:55:40Z</time>
      </trkpt>
      <trkpt lat="35.865120" lon="-119.052300">
        <ele>155.055</ele>
        <time>2018-12-29T01:56:00Z</time>
      </trkpt>
      <trkpt lat="35.864890" lon="-119.052380">
        <ele>157.707</ele>
        <time>2018-12-29T01:56:20Z</time>
      </trkpt>
      <trkpt lat="35.864680" lon="-119.052460">
        <ele>158.017</ele>
        <time>2018-12-29T01:56:40Z</time>
      </trkpt>
      <trkpt lat="35.864500" lon="-119.052520">
        <ele>157.908</ele>
        <time>2018-12-29T01:57:00Z</time>
      </trkpt>
      <trkpt lat="35.864230" lon="-119.052630">
        <ele>157.898</ele>
        <time>2018-12-29T01:57:20Z</time>
      </trkpt>
      <trkpt lat="35.863880" lon="-119.052760">
        <ele>157.686</ele>
        <time>2018-12-29T01:57:40Z</time>
      </trkpt>
      <trkpt lat="35.863680" lon="-119.052840">
        <ele>157.691</ele>
        <time>2018-12-29T01:58:00Z</time>
      </trkpt>
      <trkpt lat="35.863450" lon="-119.052930">
        <ele>157.791</ele>
        <time>2018-12-29T01:58:20Z</time>
      </trkpt>
      <trkpt lat="35.863180" lon="-119.053020">
        <ele>157.795</ele>
        <time>2018-12-29T01:58:40Z</time>
      </trkpt>
      <trkpt lat="35.862970" lon="-119.053100">
        <ele>157.878</ele>
        <time>2018-12-29T01:59:00Z</time>
      </trkpt>
      <trkpt lat="35.862600" lon="-119.053220">
        <ele>157.989</ele>
        <time>2018-12-29T01:59:20Z</time>
      </trkpt>
      <trkpt lat="35.862370" lon="-119.053300">
        <ele>158.092</ele>
        <time>2018-12-29T01:59:40Z</time>
      </trkpt>
      <trkpt lat="35.862000" lon="-119.053400">
        <ele>157.868</ele>
        <time>2018-12-29T02:00:00Z</time>
      </trkpt>
      <trkpt lat="35.861620" lon="-119.053490">
        <ele>158.642</ele>
        <time>2018-12-29T02:00:20Z</time>
      </trkpt>
      <trkpt lat="35.861270" lon="-119.053560">
        <ele>157.926</ele>
        <time>2018-12-29T02:00:40Z</time>
      </trkpt>
      <trkpt lat="35.861060" lon="-119.053600">
        <ele>159.008</ele>
        <time>2018-12-29T02:01:00Z</time>
      </trkpt>
      <trkpt lat="35.860720" lon="-119.053660">
        <ele>159.469</ele>
        <time>2018-12-29T02:01:20Z</time>
      </trkpt>
      <trkpt lat="35.860500" lon="-119.053680">
        <ele>159.657</ele>
        <time>2018-12-29T02:01:40Z</time>
      </trkpt>
      <trkpt lat="35.860280" lon="-119.053710">
        <ele>160.452</ele>
        <time>2018-12-29T02:02:00Z</time>
      </trkpt>
      <trkpt lat="35.860000" lon="-119.053740">
        <ele>161.542</ele>
        <time>2018-12-29T02:02:20Z</time>
      </trkpt>
      <trkpt lat="35.859510" lon="-119.053770">
        <ele>163.046</ele>
        <time>2018-12-29T02:02:40Z</time>
      </trkpt>
      <trkpt lat="35.858820" lon="-119.053790">
        <ele>165.249</ele>
        <time>2018-12-29T02:03:00Z</time>
      </trkpt>
      <trkpt lat="35.857680" lon="-119.053780">
        <ele>167.020</ele>
        <time>2018-12-29T02:03:20Z</time>
      </trkpt>
      <trkpt lat="35.857490" lon="-119.053780">
        <ele>167.063</ele>
        <time>2018-12-29T02:03:40Z</time>
      </trkpt>
      <trkpt lat="35.857090" lon="-119.053780">
        <ele>167.084</ele>
        <time>2018-12-29T02:04:00Z</time>
      </trkpt>
      <trkpt lat="35.856430" lon="-119.053770">
        <ele>166.907</ele>
        <time>2018-12-29T02:04:20Z</time>
      </trkpt>
      <trkpt lat="35.856020" lon="-119.053770">
        <ele>166.817</ele>
        <time>2018-12-29T02:04:40Z</time>
      </trkpt>
      <trkpt lat="35.855440" lon="-119.053760">
        <ele>165.808</ele>
        <time>2018-12-29T02:05:00Z</time>
      </trkpt>
      <trkpt lat="35.854570" lon="-119.053750">
        <ele>165.431</ele>
        <time>2018-12-29T02:05:20Z</time>
      </trkpt>
      <trkpt lat="35.853630" lon="-119.053740">
        <ele>165.659</ele>
        <time>2018-12-29T02:05:40Z</time>
      </trkpt>
      <trkpt lat="35.852630" lon="-119.053740">
        <ele>167.634</ele>
        <time>2018-12-29T02:06:00Z</time>
      </trkpt>
      <trkpt lat="35.851880" lon="-119.053730">
        <ele>166.984</ele>
        <time>2018-12-29T02:06:20Z</time>
      </trkpt>
      <trkpt lat="35.851030" lon="-119.053720">
        <ele>166.928</ele>
        <time>2018-12-29T02:06:40Z</time>
      </trkpt>
      <trkpt lat="35.850790" lon="-119.053720">
        <ele>167.091</ele>
        <time>2018-12-29T02:07:00Z</time>
      </trkpt>
      <trkpt lat="35.850490" lon="-119.053720">
        <ele>168.122</ele>
        <time>2018-12-29T02:07:20Z</time>
      </trkpt>
      <trkpt lat="35.849600" lon="-119.053720">
        <ele>168.525</ele>
        <time>2018-12-29T02:07:40Z</time>
      </trkpt>
      <trkpt lat="35.848650" lon="-119.053720">
        <ele>169.782</ele>
        <time>2018-12-29T02:08:00Z</time>
      </trkpt>
      <trkpt lat="35.845370" lon="-119.053710">
        <ele>168.643</ele>
        <time>2018-12-29T02:08:20Z</time>
      </trkpt>
      <trkpt lat="35.844360" lon="-119.053700">
        <ele>168.417</ele>
        <time>2018-12-29T02:08:40Z</time>
      </trkpt>
      <trkpt lat="35.842350" lon="-119.053700">
        <ele>168.008</ele>
        <time>2018-12-29T02:09:00Z</time>
      </trkpt>
      <trkpt lat="35.841230" lon="-119.053690">
        <ele>168.231</ele>
        <time>2018-12-29T02:09:20Z</time>
      </trkpt>
      <trkpt lat="35.840830" lon="-119.053690">
        <ele>168.369</ele>
        <time>2018-12-29T02:09:40Z</time>
      </trkpt>
      <trkpt lat="35.840030" lon="-119.053690">
        <ele>170.114</ele>
        <time>2018-12-29T02:10:00Z</time>
      </trkpt>
      <trkpt lat="35.839110" lon="-119.053700">
        <ele>171.424</ele>
        <time>2018-12-29T02:10:20Z</time>
      </trkpt>
      <trkpt lat="35.837900" lon="-119.053710">
        <ele>174.468</ele>
        <time>2018-12-29T02:10:40Z</time>
      </trkpt>
      <trkpt lat="35.837580" lon="-119.053710">
        <ele>174.931</ele>
        <time>2018-12-29T02:11:00Z</time>
      </trkpt>
      <trkpt lat="35.837130" lon="-119.053710">
        <ele>174.772</ele>
        <time>2018-12-29T02:11:20Z</time>
      </trkpt>
      <trkpt lat="35.836840" lon="-119.053700">
        <ele>173.985</ele>
        <time>2018-12-29T02:11:40Z</time>
      </trkpt>
      <trkpt lat="35.835920" lon="-119.053690">
        <ele>171.237</ele>
        <time>2018-12-29T02:12:00Z</time>
      </trkpt>
      <trkpt lat="35.835780" lon="-119.053690">
        <ele>170.949</ele>
        <time>2018-12-29T02:12:20Z</time>
      </trkpt>
      <trkpt lat="35.834160" lon="-119.053670">
        <ele>168.413</ele>
        <time>2018-12-29T02:12:40Z</time>
      </trkpt>
      <trkpt lat="35.833690" lon="-119.053670">
        <ele>168.308</ele>
        <time>2018-12-29T02:13:00Z</time>
      </trkpt>
      <trkpt lat="35.832930" lon="-119.053660">
        <ele>167.366</ele>
        <time>2018-12-29T02:13:20Z</time>
      </trkpt>
      <trkpt lat="35.832740" lon="-119.053660">
        <ele>167.984</ele>
        <time>2018-12-29T02:13:40Z</time>
      </trkpt>
      <trkpt lat="35.831760" lon="-119.053660">
        <ele>168.519</ele>
        <time>2018-12-29T02:14:00Z</time>
      </trkpt>
      <trkpt lat="35.830870" lon="-119.053640">
        <ele>168.099</ele>
        <time>2018-12-29T02:14:20Z</time>
      </trkpt>
      <trkpt lat="35.830200" lon="-119.053630">
        <ele>168.453</ele>
        <time>2018-12-29T02:14:40Z</time>
      </trkpt>
      <trkpt lat="35.829840" lon="-119.053630">
        <ele>168.586</ele>
        <time>2018-12-29T02:15:00Z</time>
      </trkpt>
      <trkpt lat="35.829160" lon="-119.053630">
        <ele>169.847</ele>
        <time>2018-12-29T02:15:20Z</time>
      </trkpt>
      <trkpt lat="35.828490" lon="-119.053640">
        <ele>174.250</ele>
        <time>2018-12-29T02:15:40Z</time>
      </trkpt>
      <trkpt lat="35.828280" lon="-119.053650">
        <ele>175.573</ele>
        <time>2018-12-29T02:16:00Z</time>
      </trkpt>
      <trkpt lat="35.828100" lon="-119.053650">
        <ele>176.085</ele>
        <time>2018-12-29T02:16:20Z</time>
      </trkpt>
      <trkpt lat="35.826870" lon="-119.053630">
        <ele>176.113</ele>
        <time>2018-12-29T02:16:40Z</time>
      </trkpt>
      <trkpt lat="35.823320" lon="-119.053600">
        <ele>177.208</ele>
        <time>2018-12-29T02:17:00Z</time>
      </trkpt>
      <trkpt lat="35.822870" lon="-119.053590">
        <ele>177.290</ele>
        <time>2018-12-29T02:17:20Z</time>
      </trkpt>
      <trkpt lat="35.821530" lon="-119.053580">
        <ele>175.878</ele>
        <time>2018-12-29T02:17:40Z</time>
      </trkpt>
      <trkpt lat="35.819680" lon="-119.053580">
        <ele>176.093</ele>
        <time>2018-12-29T02:18:00Z</time>
      </trkpt>
      <trkpt lat="35.818330" lon="-119.053600">
        <ele>177.533</ele>
        <time>2018-12-29T02:18:20Z</time>
      </trkpt>
      <trkpt lat="35.817270" lon="-119.053620">
        <ele>179.127</ele>
        <time>2018-12-29T02:18:40Z</time>
      </trkpt>
      <trkpt lat="35.816310" lon="-119.053610">
        <ele>178.730</ele>
        <time>2018-12-29T02:19:00Z</time>
      </trkpt>
      <trkpt lat="35.816060" lon="-119.053610">
        <ele>178.061</ele>
        <time>2018-12-29T02:19:20Z</time>
      </trkpt>
      <trkpt lat="35.815400" lon="-119.053590">
        <ele>176.074</ele>
        <time>2018-12-29T02:19:40Z</time>
      </trkpt>
      <trkpt lat="35.814770" lon="-119.053590">
        <ele>175.166</ele>
        <time>2018-12-29T02:20:00Z</time>
      </trkpt>
      <trkpt lat="35.813770" lon="-119.053580">
        <ele>174.529</ele>
        <time>2018-12-29T02:20:20Z</time>
      </trkpt>
      <trkpt lat="35.813100" lon="-119.053580">
        <ele>174.521</ele>
        <time>2018-12-29T02:20:40Z</time>
      </trkpt>
      <trkpt lat="35.812610" lon="-119.053570">
        <ele>174.308</ele>
        <time>2018-12-29T02:21:00Z</time>
      </trkpt>
      <trkpt lat="35.812450" lon="-119.053570">
        <ele>174.569</ele>
        <time>2018-12-29T02:21:20Z</time>
      </trkpt>
      <trkpt lat="35.811720" lon="-119.053580">
        <ele>174.637</ele>
        <time>2018-12-29T02:21:40Z</time>
      </trkpt>
      <trkpt lat="35.811370" lon="-119.053570">
        <ele>174.652</ele>
        <time>2018-12-29T02:22:00Z</time>
      </trkpt>
      <trkpt lat="35.811030" lon="-119.053570">
        <ele>173.642</ele>
        <time>2018-12-29T02:22:20Z</time>
      </trkpt>
      <trkpt lat="35.810240" lon="-119.053560">
        <ele>172.686</ele>
        <time>2018-12-29T02:22:40Z</time>
      </trkpt>
      <trkpt lat="35.809860" lon="-119.053550">
        <ele>171.639</ele>
        <time>2018-12-29T02:23:00Z</time>
      </trkpt>
      <trkpt lat="35.809720" lon="-119.053550">
        <ele>173.070</ele>
        <time>2018-12-29T02:23:20Z</time>
      </trkpt>
      <trkpt lat="35.809350" lon="-119.053550">
        <ele>174.673</ele>
        <time>2018-12-29T02:23:40Z</time>
      </trkpt>
      <trkpt lat="35.808270" lon="-119.053550">
        <ele>176.244</ele>
        <time>2018-12-29T02:24:00Z</time>
      </trkpt>
      <trkpt lat="35.807300" lon="-119.053570">
        <ele>183.605</ele>
        <time>2018-12-29T02:24:20Z</time>
      </trkpt>
      <trkpt lat="35.806160" lon="-119.053560">
        <ele>184.215</ele>
        <time>2018-12-29T02:24:40Z</time>
      </trkpt>
      <trkpt lat="35.805270" lon="-119.053540">
        <ele>183.408</ele>
        <time>2018-12-29T02:25:00Z</time>
      </trkpt>
      <trkpt lat="35.804400" lon="-119.053520">
        <ele>181.117</ele>
        <time>2018-12-29T02:25:20Z</time>
      </trkpt>
      <trkpt lat="35.803300" lon="-119.053490">
        <ele>177.215</ele>
        <time>2018-12-29T02:25:40Z</time>
      </trkpt>
      <trkpt lat="35.802380" lon="-119.053480">
        <ele>176.880</ele>
        <time>2018-12-29T02:26:00Z</time>
      </trkpt>
      <trkpt lat="35.801290" lon="-119.053460">
        <ele>175.160</ele>
        <time>2018-12-29T02:26:20Z</time>
      </trkpt>
      <trkpt lat="35.800650" lon="-119.053490">
        <ele>181.274</ele>
        <time>2018-12-29T02:26:40Z</time>
      </trkpt>
      <trkpt lat="35.799680" lon="-119.053490">
        <ele>183.447</ele>
        <time>2018-12-29T02:27:00Z</time>
      </trkpt>
      <trkpt lat="35.798770" lon="-119.053480">
        <ele>183.798</ele>
        <time>2018-12-29T02:27:20Z</time>
      </trkpt>
      <trkpt lat="35.797500" lon="-119.053470">
        <ele>183.521</ele>
        <time>2018-12-29T02:27:40Z</time>
      </trkpt>
      <trkpt lat="35.796430" lon="-119.053470">
        <ele>183.417</ele>
        <time>2018-12-29T02:28:00Z</time>
      </trkpt>
      <trkpt lat="35.795670" lon="-119.053470">
        <ele>182.887</ele>
        <time>2018-12-29T02:28:20Z</time>
      </trkpt>
      <trkpt lat="35.794480" lon="-119.053440">
        <ele>178.915</ele>
        <time>2018-12-29T02:28:40Z</time>
      </trkpt>
      <trkpt lat="35.792740" lon="-119.053420">
        <ele>176.108</ele>
        <time>2018-12-29T02:29:00Z</time>
      </trkpt>
      <trkpt lat="35.791970" lon="-119.053420">
        <ele>176.724</ele>
        <time>2018-12-29T02:29:20Z</time>
      </trkpt>
      <trkpt lat="35.791640" lon="-119.053420">
        <ele>176.932</ele>
        <time>2018-12-29T02:29:40Z</time>
      </trkpt>
      <trkpt lat="35.791110" lon="-119.053410">
        <ele>177.527</ele>
        <time>2018-12-29T02:30:00Z</time>
      </trkpt>
      <trkpt lat="35.790750" lon="-119.053410">
        <ele>178.277</ele>
        <time>2018-12-29T02:30:20Z</time>
      </trkpt>
      <trkpt lat="35.790150" lon="-119.053410">
        <ele>180.311</ele>
        <time>2018-12-29T02:30:40Z</time>
      </trkpt>
      <trkpt lat="35.788700" lon="-119.053410">
        <ele>183.914</ele>
        <time>2018-12-29T02:31:00Z</time>
      </trkpt>
      <trkpt lat="35.786260" lon="-119.053420">
        <ele>191.475</ele>
        <time>2018-12-29T02:31:20Z</time>
      </trkpt>
      <trkpt lat="35.785610" lon="-119.053410">
        <ele>191.318</ele>
        <time>2018-12-29T02:31:40Z</time>
      </trkpt>
      <trkpt lat="35.783810" lon="-119.053400">
        <ele>189.591</ele>
        <time>2018-12-29T02:32:00Z</time>
      </trkpt>
      <trkpt lat="35.783380" lon="-119.053390">
        <ele>188.481</ele>
        <time>2018-12-29T02:32:20Z</time>
      </trkpt>
      <trkpt lat="35.783060" lon="-119.053390">
        <ele>187.419</ele>
        <time>2018-12-29T02:32:40Z</time>
      </trkpt>
      <trkpt lat="35.782040" lon="-119.053370">
        <ele>185.108</ele>
        <time>2018-12-29T02:33:00Z</time>
      </trkpt>
      <trkpt lat="35.781400" lon="-119.053360">
        <ele>183.952</ele>
        <time>2018-12-29T02:33:20Z</time>
      </trkpt>
      <trkpt lat="35.781200" lon="-119.053360">
        <ele>184.010</ele>
        <time>2018-12-29T02:33:40Z</time>
      </trkpt>
      <trkpt lat="35.780900" lon="-119.053360">
        <ele>184.575</ele>
        <time>2018-12-29T02:34:00Z</time>
      </trkpt>
      <trkpt lat="35.780590" lon="-119.053360">
        <ele>184.215</ele>
        <time>2018-12-29T02:34:20Z</time>
      </trkpt>
      <trkpt lat="35.780390" lon="-119.053350">
        <ele>183.639</ele>
        <time>2018-12-29T02:34:40Z</time>
      </trkpt>
      <trkpt lat="35.780090" lon="-119.053340">
        <ele>183.882</ele>
        <time>2018-12-29T02:35:00Z</time>
      </trkpt>
      <trkpt lat="35.779700" lon="-119.053360">
        <ele>187.653</ele>
        <time>2018-12-29T02:35:20Z</time>
      </trkpt>
      <trkpt lat="35.777800" lon="-119.053360">
        <ele>196.596</ele>
        <time>2018-12-29T02:35:40Z</time>
      </trkpt>
      <trkpt lat="35.776800" lon="-119.053330">
        <ele>193.227</ele>
        <time>2018-12-29T02:36:00Z</time>
      </trkpt>
      <trkpt lat="35.776130" lon="-119.053310">
        <ele>191.968</ele>
        <time>2018-12-29T02:36:20Z</time>
      </trkpt>
      <trkpt lat="35.775720" lon="-119.053300">
        <ele>191.514</ele>
        <time>2018-12-29T02:36:40Z</time>
      </trkpt>
      <trkpt lat="35.775130" lon="-119.053320">
        <ele>197.908</ele>
        <time>2018-12-29T02:37:00Z</time>
      </trkpt>
      <trkpt lat="35.774830" lon="-119.053330">
        <ele>199.465</ele>
        <time>2018-12-29T02:37:20Z</time>
      </trkpt>
      <trkpt lat="35.773910" lon="-119.053340">
        <ele>202.413</ele>
        <time>2018-12-29T02:37:40Z</time>
      </trkpt>
      <trkpt lat="35.773020" lon="-119.053320">
        <ele>200.288</ele>
        <time>2018-12-29T02:38:00Z</time>
      </trkpt>
      <trkpt lat="35.772660" lon="-119.053320">
        <ele>199.088</ele>
        <time>2018-12-29T02:38:20Z</time>
      </trkpt>
      <trkpt lat="35.771450" lon="-119.053320">
        <ele>198.352</ele>
        <time>2018-12-29T02:38:40Z</time>
      </trkpt>
      <trkpt lat="35.771030" lon="-119.053330">
        <ele>197.765</ele>
        <time>2018-12-29T02:39:00Z</time>
      </trkpt>
      <trkpt lat="35.770340" lon="-119.053300">
        <ele>191.246</ele>
        <time>2018-12-29T02:39:20Z</time>
      </trkpt>
      <trkpt lat="35.769590" lon="-119.053280">
        <ele>184.669</ele>
        <time>2018-12-29T02:39:40Z</time>
      </trkpt>
      <trkpt lat="35.768750" lon="-119.053280">
        <ele>183.652</ele>
        <time>2018-12-29T02:40:00Z</time>
      </trkpt>
      <trkpt lat="35.768110" lon="-119.053260">
        <ele>177.553</ele>
        <time>2018-12-29T02:40:20Z</time>
      </trkpt>
      <trkpt lat="35.767610" lon="-119.053260">
        <ele>176.508</ele>
        <time>2018-12-29T02:40:40Z</time>
      </trkpt>
      <trkpt lat="35.767180" lon="-119.053270">
        <ele>178.808</ele>
        <time>2018-12-29T02:41:00Z</time>
      </trkpt>
      <trkpt lat="35.766680" lon="-119.053280">
        <ele>184.828</ele>
        <time>2018-12-29T02:41:20Z</time>
      </trkpt>
      <trkpt lat="35.765660" lon="-119.053270">
        <ele>191.336</ele>
        <time>2018-12-29T02:41:40Z</time>
      </trkpt>
      <trkpt lat="35.765190" lon="-119.053260">
        <ele>191.611</ele>
        <time>2018-12-29T02:42:00Z</time>
      </trkpt>
      <trkpt lat="35.765030" lon="-119.053260">
        <ele>191.651</ele>
        <time>2018-12-29T02:42:20Z</time>
      </trkpt>
      <trkpt lat="35.764900" lon="-119.053260">
        <ele>191.675</ele>
        <time>2018-12-29T02:42:40Z</time>
      </trkpt>
      <trkpt lat="35.764790" lon="-119.053280">
        <ele>191.568</ele>
        <time>2018-12-29T02:43:00Z</time>
      </trkpt>
      <trkpt lat="35.764230" lon="-119.053270">
        <ele>191.429</ele>
        <time>2018-12-29T02:43:20Z</time>
      </trkpt>
      <trkpt lat="35.763700" lon="-119.053270">
        <ele>192.032</ele>
        <time>2018-12-29T02:43:40Z</time>
      </trkpt>
      <trkpt lat="35.763250" lon="-119.053270">
        <ele>192.656</ele>
        <time>2018-12-29T02:44:00Z</time>
      </trkpt>
      <trkpt lat="35.762420" lon="-119.053270">
        <ele>193.859</ele>
        <time>2018-12-29T02:44:20Z</time>
      </trkpt>
      <trkpt lat="35.762020" lon="-119.053270">
        <ele>194.614</ele>
        <time>2018-12-29T02:44:40Z</time>
      </trkpt>
      <trkpt lat="35.761660" lon="-119.053260">
        <ele>195.308</ele>
        <time>2018-12-29T02:45:00Z</time>
      </trkpt>
      <trkpt lat="35.759080" lon="-119.053250">
        <ele>199.358</ele>
        <time>2018-12-29T02:45:20Z</time>
      </trkpt>
      <trkpt lat="35.758940" lon="-119.053220">
        <ele>199.446</ele>
        <time>2018-12-29T02:45:40Z</time>
      </trkpt>
      <trkpt lat="35.757760" lon="-119.053210">
        <ele>200.271</ele>
        <time>2018-12-29T02:46:00Z</time>
      </trkpt>
      <trkpt lat="35.756560" lon="-119.053200">
        <ele>201.191</ele>
        <time>2018-12-29T02:46:20Z</time>
      </trkpt>
      <trkpt lat="35.756310" lon="-119.053190">
        <ele>201.435</ele>
        <time>2018-12-29T02:46:40Z</time>
      </trkpt>
      <trkpt lat="35.755910" lon="-119.053170">
        <ele>201.998</ele>
        <time>2018-12-29T02:47:00Z</time>
      </trkpt>
      <trkpt lat="35.755630" lon="-119.053150">
        <ele>202.119</ele>
        <time>2018-12-29T02:47:20Z</time>
      </trkpt>
      <trkpt lat="35.755360" lon="-119.053130">
        <ele>202.492</ele>
        <time>2018-12-29T02:47:40Z</time>
      </trkpt>
      <trkpt lat="35.755080" lon="-119.053110">
        <ele>202.614</ele>
        <time>2018-12-29T02:48:00Z</time>
      </trkpt>
      <trkpt lat="35.754690" lon="-119.053060">
        <ele>203.054</ele>
        <time>2018-12-29T02:48:20Z</time>
      </trkpt>
      <trkpt lat="35.754280" lon="-119.053020">
        <ele>203.509</ele>
        <time>2018-12-29T02:48:40Z</time>
      </trkpt>
      <trkpt lat="35.753750" lon="-119.052970">
        <ele>204.508</ele>
        <time>2018-12-29T02:49:00Z</time>
      </trkpt>
      <trkpt lat="35.753100" lon="-119.052900">
        <ele>205.364</ele>
        <time>2018-12-29T02:49:20Z</time>
      </trkpt>
      <trkpt lat="35.752420" lon="-119.052830">
        <ele>205.962</ele>
        <time>2018-12-29T02:49:40Z</time>
      </trkpt>
      <trkpt lat="35.752170" lon="-119.052810">
        <ele>205.827</ele>
        <time>2018-12-29T02:50:00Z</time>
      </trkpt>
      <trkpt lat="35.752030" lon="-119.052800">
        <ele>205.757</ele>
        <time>2018-12-29T02:50:20Z</time>
      </trkpt>
      <trkpt lat="35.751830" lon="-119.052790">
        <ele>205.721</ele>
        <time>2018-12-29T02:50:40Z</time>
      </trkpt>
      <trkpt lat="35.751660" lon="-119.052790">
        <ele>205.774</ele>
        <time>2018-12-29T02:51:00Z</time>
      </trkpt>
      <trkpt lat="35.751320" lon="-119.052790">
        <ele>206.065</ele>
        <time>2018-12-29T02:51:20Z</time>
      </trkpt>
      <trkpt lat="35.750980" lon="-119.052790">
        <ele>206.528</ele>
        <time>2018-12-29T02:51:40Z</time>
      </trkpt>
      <trkpt lat="35.750550" lon="-119.052820">
        <ele>207.297</ele>
        <time>2018-12-29T02:52:00Z</time>
      </trkpt>
      <trkpt lat="35.750290" lon="-119.052840">
        <ele>207.523</ele>
        <time>2018-12-29T02:52:20Z</time>
      </trkpt>
      <trkpt lat="35.750130" lon="-119.052860">
        <ele>207.625</ele>
        <time>2018-12-29T02:52:40Z</time>
      </trkpt>
      <trkpt lat="35.750020" lon="-119.052880">
        <ele>207.908</ele>
        <time>2018-12-29T02:53:00Z</time>
      </trkpt>
      <trkpt lat="35.749890" lon="-119.052900">
        <ele>208.392</ele>
        <time>2018-12-29T02:53:20Z</time>
      </trkpt>
      <trkpt lat="35.749690" lon="-119.052930">
        <ele>209.220</ele>
        <time>2018-12-29T02:53:40Z</time>
      </trkpt>
      <trkpt lat="35.749470" lon="-119.052970">
        <ele>210.215</ele>
        <time>2018-12-29T02:54:00Z</time>
      </trkpt>
      <trkpt lat="35.749080" lon="-119.053040">
        <ele>210.375</ele>
        <time>2018-12-29T02:54:20Z</time>
      </trkpt>
      <trkpt lat="35.748950" lon="-119.053070">
        <ele>210.019</ele>
        <time>2018-12-29T02:54:40Z</time>
      </trkpt>
      <trkpt lat="35.748800" lon="-119.053100">
        <ele>209.562</ele>
        <time>2018-12-29T02:55:00Z</time>
      </trkpt>
      <trkpt lat="35.748550" lon="-119.053160">
        <ele>209.433</ele>
        <time>2018-12-29T02:55:20Z</time>
      </trkpt>
      <trkpt lat="35.748460" lon="-119.053190">
        <ele>209.586</ele>
        <time>2018-12-29T02:55:40Z</time>
      </trkpt>
      <trkpt lat="35.748270" lon="-119.053240">
        <ele>210.299</ele>
        <time>2018-12-29T02:56:00Z</time>
      </trkpt>
      <trkpt lat="35.748000" lon="-119.053330">
        <ele>211.107</ele>
        <time>2018-12-29T02:56:20Z</time>
      </trkpt>
      <trkpt lat="35.747910" lon="-119.053360">
        <ele>211.427</ele>
        <time>2018-12-29T02:56:40Z</time>
      </trkpt>
      <trkpt lat="35.747750" lon="-119.053410">
        <ele>211.608</ele>
        <time>2018-12-29T02:57:00Z</time>
      </trkpt>
      <trkpt lat="35.747480" lon="-119.053500">
        <ele>211.042</ele>
        <time>2018-12-29T02:57:20Z</time>
      </trkpt>
      <trkpt lat="35.747330" lon="-119.053550">
        <ele>210.520</ele>
        <time>2018-12-29T02:57:40Z</time>
      </trkpt>
      <trkpt lat="35.747230" lon="-119.053580">
        <ele>210.045</ele>
        <time>2018-12-29T02:58:00Z</time>
      </trkpt>
      <trkpt lat="35.747050" lon="-119.053650">
        <ele>209.215</ele>
        <time>2018-12-29T02:58:20Z</time>
      </trkpt>
      <trkpt lat="35.746890" lon="-119.053720">
        <ele>207.869</ele>
        <time>2018-12-29T02:58:40Z</time>
      </trkpt>
      <trkpt lat="35.746790" lon="-119.053760">
        <ele>206.942</ele>
        <time>2018-12-29T02:59:00Z</time>
      </trkpt>
      <trkpt lat="35.746710" lon="-119.053790">
        <ele>206.973</ele>
        <time>2018-12-29T02:59:20Z</time>
      </trkpt>
      <trkpt lat="35.746600" lon="-119.053840">
        <ele>206.556</ele>
        <time>2018-12-29T02:59:40Z</time>
      </trkpt>
      <trkpt lat="35.746510" lon="-119.053880">
        <ele>205.998</ele>
        <time>2018-12-29T03:00:00Z</time>
      </trkpt>
      <trkpt lat="35.746390" lon="-119.053940">
        <ele>205.715</ele>
        <time>2018-12-29T03:00:20Z</time>
      </trkpt>
      <trkpt lat="35.746270" lon="-119.054000">
        <ele>205.526</ele>
        <time>2018-12-29T03:00:40Z</time>
      </trkpt>
      <trkpt lat="35.745820" lon="-119.054250">
        <ele>204.908</ele>
        <time>2018-12-29T03:01:00Z</time>
      </trkpt>
      <trkpt lat="35.745610" lon="-119.054360">
        <ele>204.652</ele>
        <time>2018-12-29T03:01:20Z</time>
      </trkpt>
      <trkpt lat="35.745120" lon="-119.054640">
        <ele>204.380</ele>
        <time>2018-12-29T03:01:40Z</time>
      </trkpt>
      <trkpt lat="35.744530" lon="-119.054980">
        <ele>204.565</ele>
        <time>2018-12-29T03:02:00Z</time>
      </trkpt>
      <trkpt lat="35.744160" lon="-119.055200">
        <ele>204.375</ele>
        <time>2018-12-29T03:02:20Z</time>
      </trkpt>
      <trkpt lat="35.743720" lon="-119.055460">
        <ele>203.879</ele>
        <time>2018-12-29T03:02:40Z</time>
      </trkpt>
      <trkpt lat="35.743340" lon="-119.055690">
        <ele>204.042</ele>
        <time>2018-12-29T03:03:00Z</time>
      </trkpt>
      <trkpt lat="35.742830" lon="-119.055990">
        <ele>203.713</ele>
        <time>2018-12-29T03:03:20Z</time>
      </trkpt>
      <trkpt lat="35.742410" lon="-119.056230">
        <ele>201.786</ele>
        <time>2018-12-29T03:03:40Z</time>
      </trkpt>
      <trkpt lat="35.742190" lon="-119.056350">
        <ele>200.494</ele>
        <time>2018-12-29T03:04:00Z</time>
      </trkpt>
      <trkpt lat="35.741830" lon="-119.056560">
        <ele>198.957</ele>
        <time>2018-12-29T03:04:20Z</time>
      </trkpt>
      <trkpt lat="35.741450" lon="-119.056780">
        <ele>198.922</ele>
        <time>2018-12-29T03:04:40Z</time>
      </trkpt>
      <trkpt lat="35.741100" lon="-119.056990">
        <ele>198.908</ele>
        <time>2018-12-29T03:05:00Z</time>
      </trkpt>
      <trkpt lat="35.740540" lon="-119.057320">
        <ele>198.812</ele>
        <time>2018-12-29T03:05:20Z</time>
      </trkpt>
      <trkpt lat="35.740120" lon="-119.057560">
        <ele>199.460</ele>
        <time>2018-12-29T03:05:40Z</time>
      </trkpt>
      <trkpt lat="35.739890" lon="-119.057700">
        <ele>201.795</ele>
        <time>2018-12-29T03:06:00Z</time>
      </trkpt>
      <trkpt lat="35.739790" lon="-119.057770">
        <ele>202.935</ele>
        <time>2018-12-29T03:06:20Z</time>
      </trkpt>
      <trkpt lat="35.739640" lon="-119.057850">
        <ele>203.799</ele>
        <time>2018-12-29T03:06:40Z</time>
      </trkpt>
      <trkpt lat="35.739520" lon="-119.057920">
        <ele>204.042</ele>
        <time>2018-12-29T03:07:00Z</time>
      </trkpt>
      <trkpt lat="35.739400" lon="-119.057990">
        <ele>204.433</ele>
        <time>2018-12-29T03:07:20Z</time>
      </trkpt>
      <trkpt lat="35.739180" lon="-119.058110">
        <ele>204.866</ele>
        <time>2018-12-29T03:07:40Z</time>
      </trkpt>
      <trkpt lat="35.739010" lon="-119.058200">
        <ele>205.281</ele>
        <time>2018-12-29T03:08:00Z</time>
      </trkpt>
      <trkpt lat="35.738810" lon="-119.058300">
        <ele>205.461</ele>
        <time>2018-12-29T03:08:20Z</time>
      </trkpt>
      <trkpt lat="35.738560" lon="-119.058420">
        <ele>205.517</ele>
        <time>2018-12-29T03:08:40Z</time>
      </trkpt>
      <trkpt lat="35.738350" lon="-119.058510">
        <ele>205.608</ele>
        <time>2018-12-29T03:09:00Z</time>
      </trkpt>
      <trkpt lat="35.738120" lon="-119.058600">
        <ele>205.751</ele>
        <time>2018-12-29T03:09:20Z</time>
      </trkpt>
      <trkpt lat="35.737880" lon="-119.058690">
        <ele>205.629</ele>
        <time>2018-12-29T03:09:40Z</time>
      </trkpt>
      <trkpt lat="35.737770" lon="-119.058730">
        <ele>205.674</ele>
        <time>2018-12-29T03:10:00Z</time>
      </trkpt>
      <trkpt lat="35.737540" lon="-119.058800">
        <ele>205.654</ele>
        <time>2018-12-29T03:10:20Z</time>
      </trkpt>
      <trkpt lat="35.737390" lon="-119.058850">
        <ele>205.578</ele>
        <time>2018-12-29T03:10:40Z</time>
      </trkpt>
      <trkpt lat="35.737180" lon="-119.058900">
        <ele>205.551</ele>
        <time>2018-12-29T03:11:00Z</time>
      </trkpt>
      <trkpt lat="35.736900" lon="-119.058960">
        <ele>205.512</ele>
        <time>2018-12-29T03:11:20Z</time>
      </trkpt>
      <trkpt lat="35.736630" lon="-119.059020">
        <ele>205.595</ele>
        <time>2018-12-29T03:11:40Z</time>
      </trkpt>
      <trkpt lat="35.736460" lon="-119.059060">
        <ele>205.534</ele>
        <time>2018-12-29T03:12:00Z</time>
      </trkpt>
      <trkpt lat="35.736160" lon="-119.059120">
        <ele>205.555</ele>
        <time>2018-12-29T03:12:20Z</time>
      </trkpt>
      <trkpt lat="35.735850" lon="-119.059190">
        <ele>205.610</ele>
        <time>2018-12-29T03:12:40Z</time>
      </trkpt>
      <trkpt lat="35.735320" lon="-119.059320">
        <ele>205.608</ele>
        <time>2018-12-29T03:13:00Z</time>
      </trkpt>
      <trkpt lat="35.734930" lon="-119.059420">
        <ele>205.736</ele>
        <time>2018-12-29T03:13:20Z</time>
      </trkpt>
      <trkpt lat="35.734710" lon="-119.059490">
        <ele>205.864</ele>
        <time>2018-12-29T03:13:40Z</time>
      </trkpt>
      <trkpt lat="35.734430" lon="-119.059580">
        <ele>205.729</ele>
        <time>2018-12-29T03:14:00Z</time>
      </trkpt>
      <trkpt lat="35.734160" lon="-119.059660">
        <ele>205.619</ele>
        <time>2018-12-29T03:14:20Z</time>
      </trkpt>
      <trkpt lat="35.733770" lon="-119.059800">
        <ele>205.513</ele>
        <time>2018-12-29T03:14:40Z</time>
      </trkpt>
      <trkpt lat="35.733220" lon="-119.059990">
        <ele>205.586</ele>
        <time>2018-12-29T03:15:00Z</time>
      </trkpt>
      <trkpt lat="35.731710" lon="-119.060510">
        <ele>205.677</ele>
        <time>2018-12-29T03:15:20Z</time>
      </trkpt>
      <trkpt lat="35.730810" lon="-119.060820">
        <ele>205.290</ele>
        <time>2018-12-29T03:15:40Z</time>
      </trkpt>
      <trkpt lat="35.730550" lon="-119.060910">
        <ele>204.315</ele>
        <time>2018-12-29T03:16:00Z</time>
      </trkpt>
      <trkpt lat="35.730030" lon="-119.061070">
        <ele>201.165</ele>
        <time>2018-12-29T03:16:20Z</time>
      </trkpt>
      <trkpt lat="35.729640" lon="-119.061200">
        <ele>199.511</ele>
        <time>2018-12-29T03:16:40Z</time>
      </trkpt>
      <trkpt lat="35.729390" lon="-119.061290">
        <ele>199.108</ele>
        <time>2018-12-29T03:17:00Z</time>
      </trkpt>
      <trkpt lat="35.729070" lon="-119.061400">
        <ele>199.034</ele>
        <time>2018-12-29T03:17:20Z</time>
      </trkpt>
      <trkpt lat="35.728080" lon="-119.061730">
        <ele>202.192</ele>
        <time>2018-12-29T03:17:40Z</time>
      </trkpt>
      <trkpt lat="35.726930" lon="-119.062120">
        <ele>203.977</ele>
        <time>2018-12-29T03:18:00Z</time>
      </trkpt>
      <trkpt lat="35.725780" lon="-119.062520">
        <ele>203.857</ele>
        <time>2018-12-29T03:18:20Z</time>
      </trkpt>
      <trkpt lat="35.725300" lon="-119.062680">
        <ele>204.121</ele>
        <time>2018-12-29T03:18:40Z</time>
      </trkpt>
      <trkpt lat="35.725010" lon="-119.062790">
        <ele>204.664</ele>
        <time>2018-12-29T03:19:00Z</time>
      </trkpt>
      <trkpt lat="35.724490" lon="-119.062960">
        <ele>204.595</ele>
        <time>2018-12-29T03:19:20Z</time>
      </trkpt>
      <trkpt lat="35.722570" lon="-119.063620">
        <ele>205.588</ele>
        <time>2018-12-29T03:19:40Z</time>
      </trkpt>
      <trkpt lat="35.722030" lon="-119.063810">
        <ele>205.581</ele>
        <time>2018-12-29T03:20:00Z</time>
      </trkpt>
      <trkpt lat="35.721510" lon="-119.063980">
        <ele>207.561</ele>
        <time>2018-12-29T03:20:20Z</time>
      </trkpt>
      <trkpt lat="35.721280" lon="-119.064070">
        <ele>208.817</ele>
        <time>2018-12-29T03:20:40Z</time>
      </trkpt>
      <trkpt lat="35.720620" lon="-119.064310">
        <ele>211.708</ele>
        <time>2018-12-29T03:21:00Z</time>
      </trkpt>
      <trkpt lat="35.720120" lon="-119.064490">
        <ele>212.741</ele>
        <time>2018-12-29T03:21:20Z</time>
      </trkpt>
      <trkpt lat="35.719740" lon="-119.064610">
        <ele>212.599</ele>
        <time>2018-12-29T03:21:40Z</time>
      </trkpt>
      <trkpt lat="35.719620" lon="-119.064640">
        <ele>212.464</ele>
        <time>2018-12-29T03:22:00Z</time>
      </trkpt>
      <trkpt lat="35.719350" lon="-119.064720">
        <ele>212.374</ele>
        <time>2018-12-29T03:22:20Z</time>
      </trkpt>
      <trkpt lat="35.719030" lon="-119.064800">
        <ele>212.398</ele>
        <time>2018-12-29T03:22:40Z</time>
      </trkpt>
      <trkpt lat="35.718710" lon="-119.064870">
        <ele>212.311</ele>
        <time>2018-12-29T03:23:00Z</time>
      </trkpt>
      <trkpt lat="35.718540" lon="-119.064900">
        <ele>212.352</ele>
        <time>2018-12-29T03:23:20Z</time>
      </trkpt>
      <trkpt lat="35.718400" lon="-119.064930">
        <ele>212.625</ele>
        <time>2018-12-29T03:23:40Z</time>
      </trkpt>
      <trkpt lat="35.718230" lon="-119.064960">
        <ele>213.332</ele>
        <time>2018-12-29T03:24:00Z</time>
      </trkpt>
      <trkpt lat="35.717810" lon="-119.065020">
        <ele>213.692</ele>
        <time>2018-12-29T03:24:20Z</time>
      </trkpt>
      <trkpt lat="35.717560" lon="-119.065060">
        <ele>212.911</ele>
        <time>2018-12-29T03:24:40Z</time>
      </trkpt>
      <trkpt lat="35.717460" lon="-119.065070">
        <ele>212.708</ele>
        <time>2018-12-29T03:25:00Z</time>
      </trkpt>
      <trkpt lat="35.717260" lon="-119.065090">
        <ele>212.746</ele>
        <time>2018-12-29T03:25:20Z</time>
      </trkpt>
      <trkpt lat="35.717050" lon="-119.065110">
        <ele>212.814</ele>
        <time>2018-12-29T03:25:40Z</time>
      </trkpt>
      <trkpt lat="35.716760" lon="-119.065130">
        <ele>212.999</ele>
        <time>2018-12-29T03:26:00Z</time>
      </trkpt>
      <trkpt lat="35.716350" lon="-119.065140">
        <ele>212.729</ele>
        <time>2018-12-29T03:26:20Z</time>
      </trkpt>
      <trkpt lat="35.716120" lon="-119.065140">
        <ele>212.633</ele>
        <time>2018-12-29T03:26:40Z</time>
      </trkpt>
      <trkpt lat="35.715930" lon="-119.065140">
        <ele>212.776</ele>
        <time>2018-12-29T03:27:00Z</time>
      </trkpt>
      <trkpt lat="35.715810" lon="-119.065130">
        <ele>212.897</ele>
        <time>2018-12-29T03:27:20Z</time>
      </trkpt>
      <trkpt lat="35.715720" lon="-119.065130">
        <ele>212.870</ele>
        <time>2018-12-29T03:27:40Z</time>
      </trkpt>
      <trkpt lat="35.715650" lon="-119.065120">
        <ele>213.052</ele>
        <time>2018-12-29T03:28:00Z</time>
      </trkpt>
      <trkpt lat="35.715500" lon="-119.065110">
        <ele>213.353</ele>
        <time>2018-12-29T03:28:20Z</time>
      </trkpt>
      <trkpt lat="35.715270" lon="-119.065090">
        <ele>213.608</ele>
        <time>2018-12-29T03:28:40Z</time>
      </trkpt>
      <trkpt lat="35.714880" lon="-119.065050">
        <ele>214.308</ele>
        <time>2018-12-29T03:29:00Z</time>
      </trkpt>
      <trkpt lat="35.714790" lon="-119.065030">
        <ele>214.428</ele>
        <time>2018-12-29T03:29:20Z</time>
      </trkpt>
      <trkpt lat="35.714610" lon="-119.065010">
        <ele>214.596</ele>
        <time>2018-12-29T03:29:40Z</time>
      </trkpt>
      <trkpt lat="35.714510" lon="-119.064990">
        <ele>214.571</ele>
        <time>2018-12-29T03:30:00Z</time>
      </trkpt>
      <trkpt lat="35.714360" lon="-119.064970">
        <ele>214.521</ele>
        <time>2018-12-29T03:30:20Z</time>
      </trkpt>
      <trkpt lat="35.714140" lon="-119.064930">
        <ele>214.555</ele>
        <time>2018-12-29T03:30:40Z</time>
      </trkpt>
      <trkpt lat="35.713970" lon="-119.064890">
        <ele>214.738</ele>
        <time>2018-12-29T03:31:00Z</time>
      </trkpt>
      <trkpt lat="35.713610" lon="-119.064810">
        <ele>217.449</ele>
        <time>2018-12-29T03:31:20Z</time>
      </trkpt>
      <trkpt lat="35.713460" lon="-119.064770">
        <ele>218.662</ele>
        <time>2018-12-29T03:31:40Z</time>
      </trkpt>
      <trkpt lat="35.713220" lon="-119.064710">
        <ele>220.057</ele>
        <time>2018-12-29T03:32:00Z</time>
      </trkpt>
      <trkpt lat="35.713050" lon="-119.064670">
        <ele>220.300</ele>
        <time>2018-12-29T03:32:20Z</time>
      </trkpt>
      <trkpt lat="35.712960" lon="-119.064650">
        <ele>220.520</ele>
        <time>2018-12-29T03:32:40Z</time>
      </trkpt>
      <trkpt lat="35.712820" lon="-119.064620">
        <ele>220.608</ele>
        <time>2018-12-29T03:33:00Z</time>
      </trkpt>
      <trkpt lat="35.712550" lon="-119.064560">
        <ele>220.568</ele>
        <time>2018-12-29T03:33:20Z</time>
      </trkpt>
      <trkpt lat="35.712290" lon="-119.064500">
        <ele>219.976</ele>
        <time>2018-12-29T03:33:40Z</time>
      </trkpt>
      <trkpt lat="35.712040" lon="-119.064450">
        <ele>218.571</ele>
        <time>2018-12-29T03:34:00Z</time>
      </trkpt>
      <trkpt lat="35.711650" lon="-119.064370">
        <ele>215.541</ele>
        <time>2018-12-29T03:34:20Z</time>
      </trkpt>
      <trkpt lat="35.711230" lon="-119.064280">
        <ele>213.515</ele>
        <time>2018-12-29T03:34:40Z</time>
      </trkpt>
      <trkpt lat="35.710240" lon="-119.064050">
        <ele>213.048</ele>
        <time>2018-12-29T03:35:00Z</time>
      </trkpt>
      <trkpt lat="35.708740" lon="-119.063710">
        <ele>212.079</ele>
        <time>2018-12-29T03:35:20Z</time>
      </trkpt>
      <trkpt lat="35.707890" lon="-119.063530">
        <ele>209.122</ele>
        <time>2018-12-29T03:35:40Z</time>
      </trkpt>
      <trkpt lat="35.705600" lon="-119.062990">
        <ele>217.241</ele>
        <time>2018-12-29T03:36:00Z</time>
      </trkpt>
      <trkpt lat="35.705070" lon="-119.062880">
        <ele>217.981</ele>
        <time>2018-12-29T03:36:20Z</time>
      </trkpt>
      <trkpt lat="35.704470" lon="-119.062750">
        <ele>218.709</ele>
        <time>2018-12-29T03:36:40Z</time>
      </trkpt>
      <trkpt lat="35.704100" lon="-119.062680">
        <ele>218.708</ele>
        <time>2018-12-29T03:37:00Z</time>
      </trkpt>
      <trkpt lat="35.704020" lon="-119.062660">
        <ele>218.757</ele>
        <time>2018-12-29T03:37:20Z</time>
      </trkpt>
      <trkpt lat="35.703760" lon="-119.062620">
        <ele>218.795</ele>
        <time>2018-12-29T03:37:40Z</time>
      </trkpt>
      <trkpt lat="35.703480" lon="-119.062580">
        <ele>218.980</ele>
        <time>2018-12-29T03:38:00Z</time>
      </trkpt>
      <trkpt lat="35.703200" lon="-119.062550">
        <ele>219.090</ele>
        <time>2018-12-29T03:38:20Z</time>
      </trkpt>
      <trkpt lat="35.702920" lon="-119.062530">
        <ele>219.354</ele>
        <time>2018-12-29T03:38:40Z</time>
      </trkpt>
      <trkpt lat="35.702620" lon="-119.062520">
        <ele>220.567</ele>
        <time>2018-12-29T03:39:00Z</time>
      </trkpt>
      <trkpt lat="35.702340" lon="-119.062510">
        <ele>221.878</ele>
        <time>2018-12-29T03:39:20Z</time>
      </trkpt>
      <trkpt lat="35.702070" lon="-119.062510">
        <ele>223.171</ele>
        <time>2018-12-29T03:39:40Z</time>
      </trkpt>
      <trkpt lat="35.701770" lon="-119.062510">
        <ele>223.299</ele>
        <time>2018-12-29T03:40:00Z</time>
      </trkpt>
      <trkpt lat="35.701450" lon="-119.062530">
        <ele>224.807</ele>
        <time>2018-12-29T03:40:20Z</time>
      </trkpt>
      <trkpt lat="35.701190" lon="-119.062540">
        <ele>226.227</ele>
        <time>2018-12-29T03:40:40Z</time>
      </trkpt>
      <trkpt lat="35.700930" lon="-119.062570">
        <ele>226.808</ele>
        <time>2018-12-29T03:41:00Z</time>
      </trkpt>
      <trkpt lat="35.700770" lon="-119.062590">
        <ele>226.922</ele>
        <time>2018-12-29T03:41:20Z</time>
      </trkpt>
      <trkpt lat="35.700650" lon="-119.062600">
        <ele>226.830</ele>
        <time>2018-12-29T03:41:40Z</time>
      </trkpt>
      <trkpt lat="35.700520" lon="-119.062620">
        <ele>226.735</ele>
        <time>2018-12-29T03:42:00Z</time>
      </trkpt>
      <trkpt lat="35.700340" lon="-119.062650">
        <ele>226.685</ele>
        <time>2018-12-29T03:42:20Z</time>
      </trkpt>
      <trkpt lat="35.700060" lon="-119.062710">
        <ele>226.679</ele>
        <time>2018-12-29T03:42:40Z</time>
      </trkpt>
      <trkpt lat="35.699780" lon="-119.062770">
        <ele>226.612</ele>
        <time>2018-12-29T03:43:00Z</time>
      </trkpt>
      <trkpt lat="35.699500" lon="-119.062830">
        <ele>226.723</ele>
        <time>2018-12-29T03:43:20Z</time>
      </trkpt>
      <trkpt lat="35.699230" lon="-119.062900">
        <ele>226.886</ele>
        <time>2018-12-29T03:43:40Z</time>
      </trkpt>
      <trkpt lat="35.698950" lon="-119.062980">
        <ele>226.752</ele>
        <time>2018-12-29T03:44:00Z</time>
      </trkpt>
      <trkpt lat="35.698680" lon="-119.063060">
        <ele>226.753</ele>
        <time>2018-12-29T03:44:20Z</time>
      </trkpt>
      <trkpt lat="35.698570" lon="-119.063100">
        <ele>226.708</ele>
        <time>2018-12-29T03:44:40Z</time>
      </trkpt>
      <trkpt lat="35.698480" lon="-119.063130">
        <ele>226.708</ele>
        <time>2018-12-29T03:45:00Z</time>
      </trkpt>
      <trkpt lat="35.698420" lon="-119.063150">
        <ele>226.838</ele>
        <time>2018-12-29T03:45:20Z</time>
      </trkpt>
      <trkpt lat="35.698280" lon="-119.063190">
        <ele>227.046</ele>
        <time>2018-12-29T03:45:40Z</time>
      </trkpt>
      <trkpt lat="35.698040" lon="-119.063280">
        <ele>227.841</ele>
        <time>2018-12-29T03:46:00Z</time>
      </trkpt>
      <trkpt lat="35.697650" lon="-119.063440">
        <ele>227.971</ele>
        <time>2018-12-29T03:46:20Z</time>
      </trkpt>
      <trkpt lat="35.697390" lon="-119.063550">
        <ele>227.795</ele>
        <time>2018-12-29T03:46:40Z</time>
      </trkpt>
      <trkpt lat="35.697050" lon="-119.063700">
        <ele>227.328</ele>
        <time>2018-12-29T03:47:00Z</time>
      </trkpt>
      <trkpt lat="35.696770" lon="-119.063820">
        <ele>225.929</ele>
        <time>2018-12-29T03:47:20Z</time>
      </trkpt>
      <trkpt lat="35.696510" lon="-119.063930">
        <ele>224.012</ele>
        <time>2018-12-29T03:47:40Z</time>
      </trkpt>
      <trkpt lat="35.696250" lon="-119.064050">
        <ele>222.014</ele>
        <time>2018-12-29T03:48:00Z</time>
      </trkpt>
      <trkpt lat="35.695890" lon="-119.064200">
        <ele>221.754</ele>
        <time>2018-12-29T03:48:20Z</time>
      </trkpt>
      <trkpt lat="35.695510" lon="-119.064360">
        <ele>221.709</ele>
        <time>2018-12-29T03:48:40Z</time>
      </trkpt>
      <trkpt lat="35.695120" lon="-119.064530">
        <ele>222.508</ele>
        <time>2018-12-29T03:49:00Z</time>
      </trkpt>
      <trkpt lat="35.694760" lon="-119.064670">
        <ele>226.844</ele>
        <time>2018-12-29T03:49:20Z</time>
      </trkpt>
      <trkpt lat="35.694260" lon="-119.064870">
        <ele>228.052</ele>
        <time>2018-12-29T03:49:40Z</time>
      </trkpt>
      <trkpt lat="35.694110" lon="-119.064940">
        <ele>227.947</ele>
        <time>2018-12-29T03:50:00Z</time>
      </trkpt>
      <trkpt lat="35.693630" lon="-119.065150">
        <ele>227.237</ele>
        <time>2018-12-29T03:50:20Z</time>
      </trkpt>
      <trkpt lat="35.692990" lon="-119.065400">
        <ele>227.841</ele>
        <time>2018-12-29T03:50:40Z</time>
      </trkpt>
      <trkpt lat="35.692350" lon="-119.065640">
        <ele>227.954</ele>
        <time>2018-12-29T03:51:00Z</time>
      </trkpt>
      <trkpt lat="35.691440" lon="-119.065950">
        <ele>227.765</ele>
        <time>2018-12-29T03:51:20Z</time>
      </trkpt>
      <trkpt lat="35.690670" lon="-119.066180">
        <ele>226.728</ele>
        <time>2018-12-29T03:51:40Z</time>
      </trkpt>
      <trkpt lat="35.690260" lon="-119.066300">
        <ele>226.674</ele>
        <time>2018-12-29T03:52:00Z</time>
      </trkpt>
      <trkpt lat="35.689620" lon="-119.066490">
        <ele>226.156</ele>
        <time>2018-12-29T03:52:20Z</time>
      </trkpt>
      <trkpt lat="35.689370" lon="-119.066560">
        <ele>225.921</ele>
        <time>2018-12-29T03:52:40Z</time>
      </trkpt>
      <trkpt lat="35.688710" lon="-119.066770">
        <ele>227.708</ele>
        <time>2018-12-29T03:53:00Z</time>
      </trkpt>
      <trkpt lat="35.688060" lon="-119.066960">
        <ele>226.540</ele>
        <time>2018-12-29T03:53:20Z</time>
      </trkpt>
      <trkpt lat="35.687530" lon="-119.067100">
        <ele>225.258</ele>
        <time>2018-12-29T03:53:40Z</time>
      </trkpt>
      <trkpt lat="35.687020" lon="-119.067240">
        <ele>223.023</ele>
        <time>2018-12-29T03:54:00Z</time>
      </trkpt>
      <trkpt lat="35.686490" lon="-119.067400">
        <ele>222.033</ele>
        <time>2018-12-29T03:54:20Z</time>
      </trkpt>
      <trkpt lat="35.685710" lon="-119.067620">
        <ele>219.577</ele>
        <time>2018-12-29T03:54:40Z</time>
      </trkpt>
      <trkpt lat="35.685190" lon="-119.067760">
        <ele>216.940</ele>
        <time>2018-12-29T03:55:00Z</time>
      </trkpt>
      <trkpt lat="35.684690" lon="-119.067900">
        <ele>216.621</ele>
        <time>2018-12-29T03:55:20Z</time>
      </trkpt>
      <trkpt lat="35.684550" lon="-119.067950">
        <ele>217.264</ele>
        <time>2018-12-29T03:55:40Z</time>
      </trkpt>
      <trkpt lat="35.684270" lon="-119.068050">
        <ele>219.165</ele>
        <time>2018-12-29T03:56:00Z</time>
      </trkpt>
      <trkpt lat="35.683650" lon="-119.068240">
        <ele>220.668</ele>
        <time>2018-12-29T03:56:20Z</time>
      </trkpt>
      <trkpt lat="35.683100" lon="-119.068400">
        <ele>220.914</ele>
        <time>2018-12-29T03:56:40Z</time>
      </trkpt>
      <trkpt lat="35.682340" lon="-119.068620">
        <ele>221.208</ele>
        <time>2018-12-29T03:57:00Z</time>
      </trkpt>
      <trkpt lat="35.681680" lon="-119.068810">
        <ele>221.149</ele>
        <time>2018-12-29T03:57:20Z</time>
      </trkpt>
      <trkpt lat="35.681320" lon="-119.068920">
        <ele>220.747</ele>
        <time>2018-12-29T03:57:40Z</time>
      </trkpt>
      <trkpt lat="35.681050" lon="-119.069000">
        <ele>220.522</ele>
        <time>2018-12-29T03:58:00Z</time>
      </trkpt>
      <trkpt lat="35.680900" lon="-119.069060">
        <ele>220.592</ele>
        <time>2018-12-29T03:58:20Z</time>
      </trkpt>
      <trkpt lat="35.680530" lon="-119.069200">
        <ele>220.756</ele>
        <time>2018-12-29T03:58:40Z</time>
      </trkpt>
      <trkpt lat="35.680150" lon="-119.069360">
        <ele>221.539</ele>
        <time>2018-12-29T03:59:00Z</time>
      </trkpt>
      <trkpt lat="35.679780" lon="-119.069530">
        <ele>221.880</ele>
        <time>2018-12-29T03:59:20Z</time>
      </trkpt>
      <trkpt lat="35.678710" lon="-119.070030">
        <ele>221.633</ele>
        <time>2018-12-29T03:59:40Z</time>
      </trkpt>
      <trkpt lat="35.678610" lon="-119.070090">
        <ele>221.676</ele>
        <time>2018-12-29T04:00:00Z</time>
      </trkpt>
      <trkpt lat="35.677900" lon="-119.070450">
        <ele>224.090</ele>
        <time>2018-12-29T04:00:20Z</time>
      </trkpt>
      <trkpt lat="35.676910" lon="-119.070960">
        <ele>228.119</ele>
        <time>2018-12-29T04:00:40Z</time>
      </trkpt>
      <trkpt lat="35.676040" lon="-119.071400">
        <ele>230.908</ele>
        <time>2018-12-29T04:01:00Z</time>
      </trkpt>
      <trkpt lat="35.675300" lon="-119.071770">
        <ele>230.830</ele>
        <time>2018-12-29T04:01:20Z</time>
      </trkpt>
      <trkpt lat="35.674560" lon="-119.072150">
        <ele>233.578</ele>
        <time>2018-12-29T04:01:40Z</time>
      </trkpt>
      <trkpt lat="35.673080" lon="-119.072880">
        <ele>234.933</ele>
        <time>2018-12-29T04:02:00Z</time>
      </trkpt>
      <trkpt lat="35.671830" lon="-119.073460">
        <ele>231.183</ele>
        <time>2018-12-29T04:02:20Z</time>
      </trkpt>
      <trkpt lat="35.671330" lon="-119.073690">
        <ele>229.627</ele>
        <time>2018-12-29T04:02:40Z</time>
      </trkpt>
      <trkpt lat="35.670710" lon="-119.074000">
        <ele>229.550</ele>
        <time>2018-12-29T04:03:00Z</time>
      </trkpt>
      <trkpt lat="35.669970" lon="-119.074390">
        <ele>232.641</ele>
        <time>2018-12-29T04:03:20Z</time>
      </trkpt>
      <trkpt lat="35.669690" lon="-119.074520">
        <ele>233.734</ele>
        <time>2018-12-29T04:03:40Z</time>
      </trkpt>
      <trkpt lat="35.669420" lon="-119.074670">
        <ele>234.779</ele>
        <time>2018-12-29T04:04:00Z</time>
      </trkpt>
      <trkpt lat="35.669050" lon="-119.074850">
        <ele>234.505</ele>
        <time>2018-12-29T04:04:20Z</time>
      </trkpt>
      <trkpt lat="35.668630" lon="-119.075050">
        <ele>235.225</ele>
        <time>2018-12-29T04:04:40Z</time>
      </trkpt>
      <trkpt lat="35.668400" lon="-119.075160">
        <ele>236.108</ele>
        <time>2018-12-29T04:05:00Z</time>
      </trkpt>
      <trkpt lat="35.668220" lon="-119.075240">
        <ele>237.140</ele>
        <time>2018-12-29T04:05:20Z</time>
      </trkpt>
      <trkpt lat="35.668080" lon="-119.075300">
        <ele>237.268</ele>
        <time>2018-12-29T04:05:40Z</time>
      </trkpt>
      <trkpt lat="35.667890" lon="-119.075370">
        <ele>236.913</ele>
        <time>2018-12-29T04:06:00Z</time>
      </trkpt>
      <trkpt lat="35.667750" lon="-119.075420">
        <ele>236.073</ele>
        <time>2018-12-29T04:06:20Z</time>
      </trkpt>
      <trkpt lat="35.666750" lon="-119.075730">
        <ele>237.187</ele>
        <time>2018-12-29T04:06:40Z</time>
      </trkpt>
      <trkpt lat="35.666090" lon="-119.075900">
        <ele>236.020</ele>
        <time>2018-12-29T04:07:00Z</time>
      </trkpt>
      <trkpt lat="35.665180" lon="-119.076130">
        <ele>235.921</ele>
        <time>2018-12-29T04:07:20Z</time>
      </trkpt>
      <trkpt lat="35.663980" lon="-119.076410">
        <ele>233.724</ele>
        <time>2018-12-29T04:07:40Z</time>
      </trkpt>
      <trkpt lat="35.662410" lon="-119.076780">
        <ele>229.293</ele>
        <time>2018-12-29T04:08:00Z</time>
      </trkpt>
      <trkpt lat="35.661490" lon="-119.077010">
        <ele>228.265</ele>
        <time>2018-12-29T04:08:20Z</time>
      </trkpt>
      <trkpt lat="35.660140" lon="-119.077350">
        <ele>226.221</ele>
        <time>2018-12-29T04:08:40Z</time>
      </trkpt>
      <trkpt lat="35.659700" lon="-119.077450">
        <ele>224.708</ele>
        <time>2018-12-29T04:09:00Z</time>
      </trkpt>
      <trkpt lat="35.659290" lon="-119.077550">
        <ele>223.372</ele>
        <time>2018-12-29T04:09:20Z</time>
      </trkpt>
      <trkpt lat="35.657900" lon="-119.077930">
        <ele>227.870</ele>
        <time>2018-12-29T04:09:40Z</time>
      </trkpt>
      <trkpt lat="35.657530" lon="-119.078040">
        <ele>228.525</ele>
        <time>2018-12-29T04:10:00Z</time>
      </trkpt>
      <trkpt lat="35.657210" lon="-119.078150">
        <ele>228.555</ele>
        <time>2018-12-29T04:10:20Z</time>
      </trkpt>
      <trkpt lat="35.656580" lon="-119.078350">
        <ele>228.489</ele>
        <time>2018-12-29T04:10:40Z</time>
      </trkpt>
      <trkpt lat="35.655570" lon="-119.078730">
        <ele>228.132</ele>
        <time>2018-12-29T04:11:00Z</time>
      </trkpt>
      <trkpt lat="35.654680" lon="-119.079080">
        <ele>228.283</ele>
        <time>2018-12-29T04:11:20Z</time>
      </trkpt>
      <trkpt lat="35.654330" lon="-119.079210">
        <ele>227.726</ele>
        <time>2018-12-29T04:11:40Z</time>
      </trkpt>
      <trkpt lat="35.653300" lon="-119.079550">
        <ele>224.542</ele>
        <time>2018-12-29T04:12:00Z</time>
      </trkpt>
      <trkpt lat="35.653030" lon="-119.079640">
        <ele>226.122</ele>
        <time>2018-12-29T04:12:20Z</time>
      </trkpt>
      <trkpt lat="35.652770" lon="-119.079710">
        <ele>227.114</ele>
        <time>2018-12-29T04:12:40Z</time>
      </trkpt>
      <trkpt lat="35.652630" lon="-119.079740">
        <ele>227.208</ele>
        <time>2018-12-29T04:13:00Z</time>
      </trkpt>
      <trkpt lat="35.652230" lon="-119.079820">
        <ele>226.757</ele>
        <time>2018-12-29T04:13:20Z</time>
      </trkpt>
      <trkpt lat="35.651860" lon="-119.079880">
        <ele>226.745</ele>
        <time>2018-12-29T04:13:40Z</time>
      </trkpt>
      <trkpt lat="35.651050" lon="-119.079980">
        <ele>227.680</ele>
        <time>2018-12-29T04:14:00Z</time>
      </trkpt>
      <trkpt lat="35.650670" lon="-119.080010">
        <ele>228.110</ele>
        <time>2018-12-29T04:14:20Z</time>
      </trkpt>
      <trkpt lat="35.649340" lon="-119.080150">
        <ele>232.554</ele>
        <time>2018-12-29T04:14:40Z</time>
      </trkpt>
      <trkpt lat="35.647690" lon="-119.080280">
        <ele>234.847</ele>
        <time>2018-12-29T04:15:00Z</time>
      </trkpt>
      <trkpt lat="35.646260" lon="-119.080380">
        <ele>232.148</ele>
        <time>2018-12-29T04:15:20Z</time>
      </trkpt>
      <trkpt lat="35.645890" lon="-119.080410">
        <ele>231.791</ele>
        <time>2018-12-29T04:15:40Z</time>
      </trkpt>
      <trkpt lat="35.645610" lon="-119.080460">
        <ele>232.963</ele>
        <time>2018-12-29T04:16:00Z</time>
      </trkpt>
      <trkpt lat="35.644310" lon="-119.080780">
        <ele>235.044</ele>
        <time>2018-12-29T04:16:20Z</time>
      </trkpt>
      <trkpt lat="35.643640" lon="-119.080990">
        <ele>235.018</ele>
        <time>2018-12-29T04:16:40Z</time>
      </trkpt>
      <trkpt lat="35.643270" lon="-119.081120">
        <ele>235.408</ele>
        <time>2018-12-29T04:17:00Z</time>
      </trkpt>
      <trkpt lat="35.642830" lon="-119.081290">
        <ele>235.559</ele>
        <time>2018-12-29T04:17:20Z</time>
      </trkpt>
      <trkpt lat="35.641630" lon="-119.081850">
        <ele>236.167</ele>
        <time>2018-12-29T04:17:40Z</time>
      </trkpt>
      <trkpt lat="35.641010" lon="-119.082130">
        <ele>235.752</ele>
        <time>2018-12-29T04:18:00Z</time>
      </trkpt>
      <trkpt lat="35.640150" lon="-119.082540">
        <ele>236.032</ele>
        <time>2018-12-29T04:18:20Z</time>
      </trkpt>
      <trkpt lat="35.639280" lon="-119.082940">
        <ele>236.156</ele>
        <time>2018-12-29T04:18:40Z</time>
      </trkpt>
      <trkpt lat="35.638420" lon="-119.083340">
        <ele>236.059</ele>
        <time>2018-12-29T04:19:00Z</time>
      </trkpt>
      <trkpt lat="35.637620" lon="-119.083700">
        <ele>232.760</ele>
        <time>2018-12-29T04:19:20Z</time>
      </trkpt>
      <trkpt lat="35.636810" lon="-119.084080">
        <ele>233.123</ele>
        <time>2018-12-29T04:19:40Z</time>
      </trkpt>
      <trkpt lat="35.636430" lon="-119.084260">
        <ele>234.731</ele>
        <time>2018-12-29T04:20:00Z</time>
      </trkpt>
      <trkpt lat="35.635920" lon="-119.084450">
        <ele>235.961</ele>
        <time>2018-12-29T04:20:20Z</time>
      </trkpt>
      <trkpt lat="35.635430" lon="-119.084610">
        <ele>235.807</ele>
        <time>2018-12-29T04:20:40Z</time>
      </trkpt>
      <trkpt lat="35.634530" lon="-119.084830">
        <ele>236.008</ele>
        <time>2018-12-29T04:21:00Z</time>
      </trkpt>
      <trkpt lat="35.633710" lon="-119.084950">
        <ele>236.646</ele>
        <time>2018-12-29T04:21:20Z</time>
      </trkpt>
      <trkpt lat="35.632270" lon="-119.085120">
        <ele>236.624</ele>
        <time>2018-12-29T04:21:40Z</time>
      </trkpt>
      <trkpt lat="35.631330" lon="-119.085230">
        <ele>235.639</ele>
        <time>2018-12-29T04:22:00Z</time>
      </trkpt>
      <trkpt lat="35.630710" lon="-119.085290">
        <ele>235.999</ele>
        <time>2018-12-29T04:22:20Z</time>
      </trkpt>
      <trkpt lat="35.630400" lon="-119.085310">
        <ele>235.523</ele>
        <time>2018-12-29T04:22:40Z</time>
      </trkpt>
      <trkpt lat="35.629860" lon="-119.085330">
        <ele>235.536</ele>
        <time>2018-12-29T04:23:00Z</time>
      </trkpt>
      <trkpt lat="35.629050" lon="-119.085330">
        <ele>236.677</ele>
        <time>2018-12-29T04:23:20Z</time>
      </trkpt>
      <trkpt lat="35.627720" lon="-119.085280">
        <ele>240.210</ele>
        <time>2018-12-29T04:23:40Z</time>
      </trkpt>
      <trkpt lat="35.626370" lon="-119.085250">
        <ele>240.733</ele>
        <time>2018-12-29T04:24:00Z</time>
      </trkpt>
      <trkpt lat="35.625240" lon="-119.085180">
        <ele>240.123</ele>
        <time>2018-12-29T04:24:20Z</time>
      </trkpt>
      <trkpt lat="35.624930" lon="-119.085170">
        <ele>239.115</ele>
        <time>2018-12-29T04:24:40Z</time>
      </trkpt>
      <trkpt lat="35.624720" lon="-119.085170">
        <ele>238.608</ele>
        <time>2018-12-29T04:25:00Z</time>
      </trkpt>
      <trkpt lat="35.624510" lon="-119.085170">
        <ele>238.036</ele>
        <time>2018-12-29T04:25:20Z</time>
      </trkpt>
      <trkpt lat="35.624370" lon="-119.085170">
        <ele>237.634</ele>
        <time>2018-12-29T04:25:40Z</time>
      </trkpt>
      <trkpt lat="35.624270" lon="-119.085180">
        <ele>237.469</ele>
        <time>2018-12-29T04:26:00Z</time>
      </trkpt>
      <trkpt lat="35.623700" lon="-119.085220">
        <ele>237.479</ele>
        <time>2018-12-29T04:26:20Z</time>
      </trkpt>
      <trkpt lat="35.623560" lon="-119.085240">
        <ele>237.613</ele>
        <time>2018-12-29T04:26:40Z</time>
      </trkpt>
      <trkpt lat="35.623180" lon="-119.085290">
        <ele>238.336</ele>
        <time>2018-12-29T04:27:00Z</time>
      </trkpt>
      <trkpt lat="35.622410" lon="-119.085400">
        <ele>235.527</ele>
        <time>2018-12-29T04:27:20Z</time>
      </trkpt>
      <trkpt lat="35.621850" lon="-119.085480">
        <ele>232.980</ele>
        <time>2018-12-29T04:27:40Z</time>
      </trkpt>
      <trkpt lat="35.621020" lon="-119.085620">
        <ele>232.849</ele>
        <time>2018-12-29T04:28:00Z</time>
      </trkpt>
      <trkpt lat="35.619160" lon="-119.085930">
        <ele>231.002</ele>
        <time>2018-12-29T04:28:20Z</time>
      </trkpt>
      <trkpt lat="35.617710" lon="-119.086170">
        <ele>232.122</ele>
        <time>2018-12-29T04:28:40Z</time>
      </trkpt>
      <trkpt lat="35.615710" lon="-119.086480">
        <ele>230.108</ele>
        <time>2018-12-29T04:29:00Z</time>
      </trkpt>
      <trkpt lat="35.614910" lon="-119.086630">
        <ele>234.137</ele>
        <time>2018-12-29T04:29:20Z</time>
      </trkpt>
      <trkpt lat="35.613720" lon="-119.086820">
        <ele>234.055</ele>
        <time>2018-12-29T04:29:40Z</time>
      </trkpt>
      <trkpt lat="35.612780" lon="-119.086970">
        <ele>235.670</ele>
        <time>2018-12-29T04:30:00Z</time>
      </trkpt>
      <trkpt lat="35.612110" lon="-119.087070">
        <ele>236.620</ele>
        <time>2018-12-29T04:30:20Z</time>
      </trkpt>
      <trkpt lat="35.611580" lon="-119.087110">
        <ele>236.564</ele>
        <time>2018-12-29T04:30:40Z</time>
      </trkpt>
      <trkpt lat="35.611190" lon="-119.087120">
        <ele>236.947</ele>
        <time>2018-12-29T04:31:00Z</time>
      </trkpt>
      <trkpt lat="35.610780" lon="-119.087120">
        <ele>237.018</ele>
        <time>2018-12-29T04:31:20Z</time>
      </trkpt>
      <trkpt lat="35.610260" lon="-119.087100">
        <ele>237.111</ele>
        <time>2018-12-29T04:31:40Z</time>
      </trkpt>
      <trkpt lat="35.609720" lon="-119.087070">
        <ele>237.411</ele>
        <time>2018-12-29T04:32:00Z</time>
      </trkpt>
      <trkpt lat="35.609090" lon="-119.087030">
        <ele>236.521</ele>
        <time>2018-12-29T04:32:20Z</time>
      </trkpt>
      <trkpt lat="35.608710" lon="-119.087000">
        <ele>233.903</ele>
        <time>2018-12-29T04:32:40Z</time>
      </trkpt>
      <trkpt lat="35.607210" lon="-119.086910">
        <ele>231.308</ele>
        <time>2018-12-29T04:33:00Z</time>
      </trkpt>
      <trkpt lat="35.607080" lon="-119.086890">
        <ele>230.274</ele>
        <time>2018-12-29T04:33:20Z</time>
      </trkpt>
      <trkpt lat="35.606940" lon="-119.086880">
        <ele>229.372</ele>
        <time>2018-12-29T04:33:40Z</time>
      </trkpt>
      <trkpt lat="35.606710" lon="-119.086870">
        <ele>228.887</ele>
        <time>2018-12-29T04:34:00Z</time>
      </trkpt>
      <trkpt lat="35.606420" lon="-119.086880">
        <ele>229.587</ele>
        <time>2018-12-29T04:34:20Z</time>
      </trkpt>
      <trkpt lat="35.606280" lon="-119.086880">
        <ele>229.931</ele>
        <time>2018-12-29T04:34:40Z</time>
      </trkpt>
      <trkpt lat="35.605760" lon="-119.086910">
        <ele>231.244</ele>
        <time>2018-12-29T04:35:00Z</time>
      </trkpt>
      <trkpt lat="35.605430" lon="-119.086950">
        <ele>231.125</ele>
        <time>2018-12-29T04:35:20Z</time>
      </trkpt>
      <trkpt lat="35.605300" lon="-119.086960">
        <ele>231.468</ele>
        <time>2018-12-29T04:35:40Z</time>
      </trkpt>
      <trkpt lat="35.604350" lon="-119.087140">
        <ele>231.968</ele>
        <time>2018-12-29T04:36:00Z</time>
      </trkpt>
      <trkpt lat="35.603820" lon="-119.087280">
        <ele>231.942</ele>
        <time>2018-12-29T04:36:20Z</time>
      </trkpt>
      <trkpt lat="35.603730" lon="-119.087300">
        <ele>231.826</ele>
        <time>2018-12-29T04:36:40Z</time>
      </trkpt>
      <trkpt lat="35.603280" lon="-119.087390">
        <ele>229.808</ele>
        <time>2018-12-29T04:37:00Z</time>
      </trkpt>
      <trkpt lat="35.602780" lon="-119.087500">
        <ele>226.919</ele>
        <time>2018-12-29T04:37:20Z</time>
      </trkpt>
      <trkpt lat="35.602500" lon="-119.087570">
        <ele>226.377</ele>
        <time>2018-12-29T04:37:40Z</time>
      </trkpt>
      <trkpt lat="35.601780" lon="-119.087750">
        <ele>226.322</ele>
        <time>2018-12-29T04:38:00Z</time>
      </trkpt>
      <trkpt lat="35.601480" lon="-119.087840">
        <ele>226.392</ele>
        <time>2018-12-29T04:38:20Z</time>
      </trkpt>
      <trkpt lat="35.600570" lon="-119.088100">
        <ele>226.136</ele>
        <time>2018-12-29T04:38:40Z</time>
      </trkpt>
      <trkpt lat="35.599790" lon="-119.088310">
        <ele>226.189</ele>
        <time>2018-12-29T04:39:00Z</time>
      </trkpt>
      <trkpt lat="35.598740" lon="-119.088590">
        <ele>225.780</ele>
        <time>2018-12-29T04:39:20Z</time>
      </trkpt>
      <trkpt lat="35.597700" lon="-119.088850">
        <ele>222.623</ele>
        <time>2018-12-29T04:39:40Z</time>
      </trkpt>
      <trkpt lat="35.597320" lon="-119.088950">
        <ele>221.211</ele>
        <time>2018-12-29T04:40:00Z</time>
      </trkpt>
      <trkpt lat="35.596930" lon="-119.089020">
        <ele>220.221</ele>
        <time>2018-12-29T04:40:20Z</time>
      </trkpt>
      <trkpt lat="35.596530" lon="-119.089100">
        <ele>219.903</ele>
        <time>2018-12-29T04:40:40Z</time>
      </trkpt>
      <trkpt lat="35.596260" lon="-119.089140">
        <ele>219.808</ele>
        <time>2018-12-29T04:41:00Z</time>
      </trkpt>
      <trkpt lat="35.595220" lon="-119.089250">
        <ele>219.394</ele>
        <time>2018-12-29T04:41:20Z</time>
      </trkpt>
      <trkpt lat="35.594150" lon="-119.089370">
        <ele>217.812</ele>
        <time>2018-12-29T04:41:40Z</time>
      </trkpt>
      <trkpt lat="35.593000" lon="-119.089490">
        <ele>215.797</ele>
        <time>2018-12-29T04:42:00Z</time>
      </trkpt>
      <trkpt lat="35.591990" lon="-119.089570">
        <ele>212.937</ele>
        <time>2018-12-29T04:42:20Z</time>
      </trkpt>
      <trkpt lat="35.591880" lon="-119.089580">
        <ele>212.751</ele>
        <time>2018-12-29T04:42:40Z</time>
      </trkpt>
      <trkpt lat="35.591010" lon="-119.089670">
        <ele>211.384</ele>
        <time>2018-12-29T04:43:00Z</time>
      </trkpt>
      <trkpt lat="35.590620" lon="-119.089720">
        <ele>211.855</ele>
        <time>2018-12-29T04:43:20Z</time>
      </trkpt>
      <trkpt lat="35.589470" lon="-119.089840">
        <ele>214.758</ele>
        <time>2018-12-29T04:43:40Z</time>
      </trkpt>
      <trkpt lat="35.587860" lon="-119.090010">
        <ele>216.572</ele>
        <time>2018-12-29T04:44:00Z</time>
      </trkpt>
      <trkpt lat="35.587580" lon="-119.090050">
        <ele>217.113</ele>
        <time>2018-12-29T04:44:20Z</time>
      </trkpt>
      <trkpt lat="35.587310" lon="-119.090080">
        <ele>217.514</ele>
        <time>2018-12-29T04:44:40Z</time>
      </trkpt>
      <trkpt lat="35.587030" lon="-119.090100">
        <ele>217.608</ele>
        <time>2018-12-29T04:45:00Z</time>
      </trkpt>
      <trkpt lat="35.586760" lon="-119.090110">
        <ele>217.620</ele>
        <time>2018-12-29T04:45:20Z</time>
      </trkpt>
      <trkpt lat="35.586480" lon="-119.090110">
        <ele>217.458</ele>
        <time>2018-12-29T04:45:40Z</time>
      </trkpt>
      <trkpt lat="35.586200" lon="-119.090110">
        <ele>217.783</ele>
        <time>2018-12-29T04:46:00Z</time>
      </trkpt>
      <trkpt lat="35.585920" lon="-119.090100">
        <ele>218.883</ele>
        <time>2018-12-29T04:46:20Z</time>
      </trkpt>
      <trkpt lat="35.585780" lon="-119.090090">
        <ele>219.347</ele>
        <time>2018-12-29T04:46:40Z</time>
      </trkpt>
      <trkpt lat="35.585650" lon="-119.090090">
        <ele>219.710</ele>
        <time>2018-12-29T04:47:00Z</time>
      </trkpt>
      <trkpt lat="35.585520" lon="-119.090070">
        <ele>219.871</ele>
        <time>2018-12-29T04:47:20Z</time>
      </trkpt>
      <trkpt lat="35.585370" lon="-119.090050">
        <ele>219.914</ele>
        <time>2018-12-29T04:47:40Z</time>
      </trkpt>
      <trkpt lat="35.585160" lon="-119.090030">
        <ele>219.866</ele>
        <time>2018-12-29T04:48:00Z</time>
      </trkpt>
      <trkpt lat="35.584970" lon="-119.089990">
        <ele>219.629</ele>
        <time>2018-12-29T04:48:20Z</time>
      </trkpt>
      <trkpt lat="35.584720" lon="-119.089940">
        <ele>219.421</ele>
        <time>2018-12-29T04:48:40Z</time>
      </trkpt>
      <trkpt lat="35.584460" lon="-119.089890">
        <ele>219.108</ele>
        <time>2018-12-29T04:49:00Z</time>
      </trkpt>
      <trkpt lat="35.584210" lon="-119.089820">
        <ele>218.839</ele>
        <time>2018-12-29T04:49:20Z</time>
      </trkpt>
      <trkpt lat="35.583960" lon="-119.089750">
        <ele>218.187</ele>
        <time>2018-12-29T04:49:40Z</time>
      </trkpt>
      <trkpt lat="35.583700" lon="-119.089670">
        <ele>217.012</ele>
        <time>2018-12-29T04:50:00Z</time>
      </trkpt>
      <trkpt lat="35.583530" lon="-119.089610">
        <ele>216.362</ele>
        <time>2018-12-29T04:50:20Z</time>
      </trkpt>
      <trkpt lat="35.583340" lon="-119.089540">
        <ele>215.716</ele>
        <time>2018-12-29T04:50:40Z</time>
      </trkpt>
      <trkpt lat="35.581220" lon="-119.088730">
        <ele>211.849</ele>
        <time>2018-12-29T04:51:00Z</time>
      </trkpt>
      <trkpt lat="35.581140" lon="-119.088700">
        <ele>211.880</ele>
        <time>2018-12-29T04:51:20Z</time>
      </trkpt>
      <trkpt lat="35.580600" lon="-119.088520">
        <ele>211.523</ele>
        <time>2018-12-29T04:51:40Z</time>
      </trkpt>
      <trkpt lat="35.580040" lon="-119.088360">
        <ele>211.549</ele>
        <time>2018-12-29T04:52:00Z</time>
      </trkpt>
      <trkpt lat="35.579480" lon="-119.088230">
        <ele>210.002</ele>
        <time>2018-12-29T04:52:20Z</time>
      </trkpt>
      <trkpt lat="35.579200" lon="-119.088160">
        <ele>209.722</ele>
        <time>2018-12-29T04:52:40Z</time>
      </trkpt>
      <trkpt lat="35.578930" lon="-119.088120">
        <ele>209.508</ele>
        <time>2018-12-29T04:53:00Z</time>
      </trkpt>
      <trkpt lat="35.578640" lon="-119.088070">
        <ele>209.377</ele>
        <time>2018-12-29T04:53:20Z</time>
      </trkpt>
      <trkpt lat="35.578300" lon="-119.088020">
        <ele>208.445</ele>
        <time>2018-12-29T04:53:40Z</time>
      </trkpt>
      <trkpt lat="35.578080" lon="-119.087990">
        <ele>207.880</ele>
        <time>2018-12-29T04:54:00Z</time>
      </trkpt>
      <trkpt lat="35.577840" lon="-119.087960">
        <ele>207.260</ele>
        <time>2018-12-29T04:54:20Z</time>
      </trkpt>
      <trkpt lat="35.577590" lon="-119.087930">
        <ele>206.864</ele>
        <time>2018-12-29T04:54:40Z</time>
      </trkpt>
      <trkpt lat="35.577390" lon="-119.087910">
        <ele>206.467</ele>
        <time>2018-12-29T04:55:00Z</time>
      </trkpt>
      <trkpt lat="35.577230" lon="-119.087910">
        <ele>206.328</ele>
        <time>2018-12-29T04:55:20Z</time>
      </trkpt>
      <trkpt lat="35.576950" lon="-119.087900">
        <ele>206.681</ele>
        <time>2018-12-29T04:55:40Z</time>
      </trkpt>
      <trkpt lat="35.576440" lon="-119.087890">
        <ele>206.242</ele>
        <time>2018-12-29T04:56:00Z</time>
      </trkpt>
      <trkpt lat="35.575650" lon="-119.087890">
        <ele>204.822</ele>
        <time>2018-12-29T04:56:20Z</time>
      </trkpt>
      <trkpt lat="35.574130" lon="-119.087910">
        <ele>204.214</ele>
        <time>2018-12-29T04:56:40Z</time>
      </trkpt>
      <trkpt lat="35.573720" lon="-119.087920">
        <ele>203.808</ele>
        <time>2018-12-29T04:57:00Z</time>
      </trkpt>
      <trkpt lat="35.573510" lon="-119.087920">
        <ele>203.267</ele>
        <time>2018-12-29T04:57:20Z</time>
      </trkpt>
      <trkpt lat="35.572130" lon="-119.087930">
        <ele>202.055</ele>
        <time>2018-12-29T04:57:40Z</time>
      </trkpt>
      <trkpt lat="35.571640" lon="-119.087940">
        <ele>201.390</ele>
        <time>2018-12-29T04:58:00Z</time>
      </trkpt>
      <trkpt lat="35.568910" lon="-119.087940">
        <ele>196.650</ele>
        <time>2018-12-29T04:58:20Z</time>
      </trkpt>
      <trkpt lat="35.568640" lon="-119.087950">
        <ele>196.354</ele>
        <time>2018-12-29T04:58:40Z</time>
      </trkpt>
      <trkpt lat="35.567030" lon="-119.087940">
        <ele>191.057</ele>
        <time>2018-12-29T04:59:00Z</time>
      </trkpt>
      <trkpt lat="35.566350" lon="-119.087950">
        <ele>189.968</ele>
        <time>2018-12-29T04:59:20Z</time>
      </trkpt>
      <trkpt lat="35.565920" lon="-119.087950">
        <ele>189.931</ele>
        <time>2018-12-29T04:59:40Z</time>
      </trkpt>
      <trkpt lat="35.565420" lon="-119.087960">
        <ele>189.957</ele>
        <time>2018-12-29T05:00:00Z</time>
      </trkpt>
      <trkpt lat="35.565110" lon="-119.087960">
        <ele>189.900</ele>
        <time>2018-12-29T05:00:20Z</time>
      </trkpt>
      <trkpt lat="35.563500" lon="-119.087980">
        <ele>187.720</ele>
        <time>2018-12-29T05:00:40Z</time>
      </trkpt>
      <trkpt lat="35.561880" lon="-119.088000">
        <ele>187.208</ele>
        <time>2018-12-29T05:01:00Z</time>
      </trkpt>
      <trkpt lat="35.557370" lon="-119.088030">
        <ele>175.898</ele>
        <time>2018-12-29T05:01:20Z</time>
      </trkpt>
      <trkpt lat="35.556790" lon="-119.088020">
        <ele>172.386</ele>
        <time>2018-12-29T05:01:40Z</time>
      </trkpt>
      <trkpt lat="35.556200" lon="-119.088020">
        <ele>171.091</ele>
        <time>2018-12-29T05:02:00Z</time>
      </trkpt>
      <trkpt lat="35.555630" lon="-119.088010">
        <ele>171.071</ele>
        <time>2018-12-29T05:02:20Z</time>
      </trkpt>
      <trkpt lat="35.555360" lon="-119.088010">
        <ele>170.465</ele>
        <time>2018-12-29T05:02:40Z</time>
      </trkpt>
      <trkpt lat="35.555100" lon="-119.087990">
        <ele>169.718</ele>
        <time>2018-12-29T05:03:00Z</time>
      </trkpt>
      <trkpt lat="35.554570" lon="-119.087960">
        <ele>168.079</ele>
        <time>2018-12-29T05:03:20Z</time>
      </trkpt>
      <trkpt lat="35.554090" lon="-119.087900">
        <ele>167.042</ele>
        <time>2018-12-29T05:03:40Z</time>
      </trkpt>
      <trkpt lat="35.553370" lon="-119.087790">
        <ele>166.511</ele>
        <time>2018-12-29T05:04:00Z</time>
      </trkpt>
      <trkpt lat="35.552890" lon="-119.087720">
        <ele>166.621</ele>
        <time>2018-12-29T05:04:20Z</time>
      </trkpt>
      <trkpt lat="35.552400" lon="-119.087630">
        <ele>166.303</ele>
        <time>2018-12-29T05:04:40Z</time>
      </trkpt>
      <trkpt lat="35.552020" lon="-119.087560">
        <ele>165.608</ele>
        <time>2018-12-29T05:05:00Z</time>
      </trkpt>
      <trkpt lat="35.550900" lon="-119.087330">
        <ele>159.874</ele>
        <time>2018-12-29T05:05:20Z</time>
      </trkpt>
      <trkpt lat="35.549150" lon="-119.087020">
        <ele>163.452</ele>
        <time>2018-12-29T05:05:40Z</time>
      </trkpt>
      <trkpt lat="35.548280" lon="-119.086870">
        <ele>165.657</ele>
        <time>2018-12-29T05:06:00Z</time>
      </trkpt>
      <trkpt lat="35.547460" lon="-119.086720">
        <ele>168.547</ele>
        <time>2018-12-29T05:06:20Z</time>
      </trkpt>
      <trkpt lat="35.546240" lon="-119.086490">
        <ele>172.621</ele>
        <time>2018-12-29T05:06:40Z</time>
      </trkpt>
      <trkpt lat="35.544330" lon="-119.086120">
        <ele>175.824</ele>
        <time>2018-12-29T05:07:00Z</time>
      </trkpt>
      <trkpt lat="35.542660" lon="-119.085790">
        <ele>180.455</ele>
        <time>2018-12-29T05:07:20Z</time>
      </trkpt>
      <trkpt lat="35.542240" lon="-119.085680">
        <ele>180.018</ele>
        <time>2018-12-29T05:07:40Z</time>
      </trkpt>
      <trkpt lat="35.541620" lon="-119.085510">
        <ele>179.643</ele>
        <time>2018-12-29T05:08:00Z</time>
      </trkpt>
      <trkpt lat="35.541010" lon="-119.085340">
        <ele>179.764</ele>
        <time>2018-12-29T05:08:20Z</time>
      </trkpt>
      <trkpt lat="35.540630" lon="-119.085250">
        <ele>183.410</ele>
        <time>2018-12-29T05:08:40Z</time>
      </trkpt>
      <trkpt lat="35.538800" lon="-119.084800">
        <ele>190.008</ele>
        <time>2018-12-29T05:09:00Z</time>
      </trkpt>
      <trkpt lat="35.538220" lon="-119.084660">
        <ele>192.887</ele>
        <time>2018-12-29T05:09:20Z</time>
      </trkpt>
      <trkpt lat="35.537660" lon="-119.084500">
        <ele>191.015</ele>
        <time>2018-12-29T05:09:40Z</time>
      </trkpt>
      <trkpt lat="35.537100" lon="-119.084350">
        <ele>192.370</ele>
        <time>2018-12-29T05:10:00Z</time>
      </trkpt>
      <trkpt lat="35.536850" lon="-119.084290">
        <ele>193.760</ele>
        <time>2018-12-29T05:10:20Z</time>
      </trkpt>
      <trkpt lat="35.536480" lon="-119.084210">
        <ele>196.124</ele>
        <time>2018-12-29T05:10:40Z</time>
      </trkpt>
      <trkpt lat="35.536110" lon="-119.084130">
        <ele>198.487</ele>
        <time>2018-12-29T05:11:00Z</time>
      </trkpt>
      <trkpt lat="35.535710" lon="-119.084030">
        <ele>200.038</ele>
        <time>2018-12-29T05:11:20Z</time>
      </trkpt>
      <trkpt lat="35.533810" lon="-119.083530">
        <ele>201.531</ele>
        <time>2018-12-29T05:11:40Z</time>
      </trkpt>
      <trkpt lat="35.533260" lon="-119.083400">
        <ele>204.761</ele>
        <time>2018-12-29T05:12:00Z</time>
      </trkpt>
      <trkpt lat="35.532400" lon="-119.083190">
        <ele>206.521</ele>
        <time>2018-12-29T05:12:20Z</time>
      </trkpt>
      <trkpt lat="35.531120" lon="-119.082850">
        <ele>206.613</ele>
        <time>2018-12-29T05:12:40Z</time>
      </trkpt>
      <trkpt lat="35.531050" lon="-119.082830">
        <ele>206.808</ele>
        <time>2018-12-29T05:13:00Z</time>
      </trkpt>
      <trkpt lat="35.530580" lon="-119.082720">
        <ele>208.229</ele>
        <time>2018-12-29T05:13:20Z</time>
      </trkpt>
      <trkpt lat="35.529860" lon="-119.082550">
        <ele>210.047</ele>
        <time>2018-12-29T05:13:40Z</time>
      </trkpt>
      <trkpt lat="35.529580" lon="-119.082490">
        <ele>210.012</ele>
        <time>2018-12-29T05:14:00Z</time>
      </trkpt>
      <trkpt lat="35.528850" lon="-119.082300">
        <ele>211.612</ele>
        <time>2018-12-29T05:14:20Z</time>
      </trkpt>
      <trkpt lat="35.528650" lon="-119.082250">
        <ele>212.196</ele>
        <time>2018-12-29T05:14:40Z</time>
      </trkpt>
      <trkpt lat="35.527260" lon="-119.081860">
        <ele>212.379</ele>
        <time>2018-12-29T05:15:00Z</time>
      </trkpt>
      <trkpt lat="35.526170" lon="-119.081580">
        <ele>213.050</ele>
        <time>2018-12-29T05:15:20Z</time>
      </trkpt>
      <trkpt lat="35.525970" lon="-119.081540">
        <ele>213.613</ele>
        <time>2018-12-29T05:15:40Z</time>
      </trkpt>
      <trkpt lat="35.525310" lon="-119.081380">
        <ele>215.937</ele>
        <time>2018-12-29T05:16:00Z</time>
      </trkpt>
      <trkpt lat="35.522480" lon="-119.080650">
        <ele>215.849</ele>
        <time>2018-12-29T05:16:20Z</time>
      </trkpt>
      <trkpt lat="35.521160" lon="-119.080310">
        <ele>216.013</ele>
        <time>2018-12-29T05:16:40Z</time>
      </trkpt>
      <trkpt lat="35.519830" lon="-119.079990">
        <ele>216.108</ele>
        <time>2018-12-29T05:17:00Z</time>
      </trkpt>
      <trkpt lat="35.518700" lon="-119.079690">
        <ele>216.496</ele>
        <time>2018-12-29T05:17:20Z</time>
      </trkpt>
      <trkpt lat="35.517950" lon="-119.079500">
        <ele>216.744</ele>
        <time>2018-12-29T05:17:40Z</time>
      </trkpt>
      <trkpt lat="35.516540" lon="-119.079150">
        <ele>216.769</ele>
        <time>2018-12-29T05:18:00Z</time>
      </trkpt>
      <trkpt lat="35.514060" lon="-119.078520">
        <ele>217.339</ele>
        <time>2018-12-29T05:18:20Z</time>
      </trkpt>
      <trkpt lat="35.513580" lon="-119.078400">
        <ele>217.093</ele>
        <time>2018-12-29T05:18:40Z</time>
      </trkpt>
      <trkpt lat="35.511590" lon="-119.077900">
        <ele>215.626</ele>
        <time>2018-12-29T05:19:00Z</time>
      </trkpt>
      <trkpt lat="35.511060" lon="-119.077780">
        <ele>215.527</ele>
        <time>2018-12-29T05:19:20Z</time>
      </trkpt>
      <trkpt lat="35.510610" lon="-119.077680">
        <ele>215.560</ele>
        <time>2018-12-29T05:19:40Z</time>
      </trkpt>
      <trkpt lat="35.510410" lon="-119.077650">
        <ele>215.518</ele>
        <time>2018-12-29T05:20:00Z</time>
      </trkpt>
      <trkpt lat="35.510140" lon="-119.077600">
        <ele>215.598</ele>
        <time>2018-12-29T05:20:20Z</time>
      </trkpt>
      <trkpt lat="35.509880" lon="-119.077560">
        <ele>215.517</ele>
        <time>2018-12-29T05:20:40Z</time>
      </trkpt>
      <trkpt lat="35.509350" lon="-119.077480">
        <ele>215.508</ele>
        <time>2018-12-29T05:21:00Z</time>
      </trkpt>
      <trkpt lat="35.508820" lon="-119.077430">
        <ele>215.374</ele>
        <time>2018-12-29T05:21:20Z</time>
      </trkpt>
      <trkpt lat="35.508300" lon="-119.077380">
        <ele>214.962</ele>
        <time>2018-12-29T05:21:40Z</time>
      </trkpt>
      <trkpt lat="35.505070" lon="-119.077090">
        <ele>214.647</ele>
        <time>2018-12-29T05:22:00Z</time>
      </trkpt>
      <trkpt lat="35.503900" lon="-119.077010">
        <ele>210.037</ele>
        <time>2018-12-29T05:22:20Z</time>
      </trkpt>
      <trkpt lat="35.501710" lon="-119.076820">
        <ele>207.411</ele>
        <time>2018-12-29T05:22:40Z</time>
      </trkpt>
      <trkpt lat="35.500000" lon="-119.076670">
        <ele>206.824</ele>
        <time>2018-12-29T05:23:00Z</time>
      </trkpt>
      <trkpt lat="35.499460" lon="-119.076620">
        <ele>206.525</ele>
        <time>2018-12-29T05:23:20Z</time>
      </trkpt>
      <trkpt lat="35.498300" lon="-119.076520">
        <ele>205.038</ele>
        <time>2018-12-29T05:23:40Z</time>
      </trkpt>
      <trkpt lat="35.497520" lon="-119.076450">
        <ele>204.261</ele>
        <time>2018-12-29T05:24:00Z</time>
      </trkpt>
      <trkpt lat="35.496890" lon="-119.076410">
        <ele>203.221</ele>
        <time>2018-12-29T05:24:20Z</time>
      </trkpt>
      <trkpt lat="35.495730" lon="-119.076310">
        <ele>202.813</ele>
        <time>2018-12-29T05:24:40Z</time>
      </trkpt>
      <trkpt lat="35.494540" lon="-119.076210">
        <ele>202.308</ele>
        <time>2018-12-29T05:25:00Z</time>
      </trkpt>
      <trkpt lat="35.493260" lon="-119.076100">
        <ele>201.979</ele>
        <time>2018-12-29T05:25:20Z</time>
      </trkpt>
      <trkpt lat="35.492280" lon="-119.076010">
        <ele>202.087</ele>
        <time>2018-12-29T05:25:40Z</time>
      </trkpt>
      <trkpt lat="35.490660" lon="-119.075870">
        <ele>205.242</ele>
        <time>2018-12-29T05:26:00Z</time>
      </trkpt>
      <trkpt lat="35.489370" lon="-119.075770">
        <ele>203.592</ele>
        <time>2018-12-29T05:26:20Z</time>
      </trkpt>
      <trkpt lat="35.487640" lon="-119.075630">
        <ele>200.036</ele>
        <time>2018-12-29T05:26:40Z</time>
      </trkpt>
      <trkpt lat="35.485660" lon="-119.075460">
        <ele>199.139</ele>
        <time>2018-12-29T05:27:00Z</time>
      </trkpt>
      <trkpt lat="35.485490" lon="-119.075450">
        <ele>199.580</ele>
        <time>2018-12-29T05:27:20Z</time>
      </trkpt>
      <trkpt lat="35.484960" lon="-119.075410">
        <ele>199.253</ele>
        <time>2018-12-29T05:27:40Z</time>
      </trkpt>
      <trkpt lat="35.484250" lon="-119.075350">
        <ele>198.733</ele>
        <time>2018-12-29T05:28:00Z</time>
      </trkpt>
      <trkpt lat="35.483720" lon="-119.075310">
        <ele>196.823</ele>
        <time>2018-12-29T05:28:20Z</time>
      </trkpt>
      <trkpt lat="35.483440" lon="-119.075280">
        <ele>197.015</ele>
        <time>2018-12-29T05:28:40Z</time>
      </trkpt>
      <trkpt lat="35.483020" lon="-119.075240">
        <ele>198.108</ele>
        <time>2018-12-29T05:29:00Z</time>
      </trkpt>
      <trkpt lat="35.481980" lon="-119.075160">
        <ele>195.546</ele>
        <time>2018-12-29T05:29:20Z</time>
      </trkpt>
      <trkpt lat="35.481440" lon="-119.075110">
        <ele>195.024</ele>
        <time>2018-12-29T05:29:40Z</time>
      </trkpt>
      <trkpt lat="35.479440" lon="-119.074940">
        <ele>192.249</ele>
        <time>2018-12-29T05:30:00Z</time>
      </trkpt>
      <trkpt lat="35.478230" lon="-119.074850">
        <ele>189.919</ele>
        <time>2018-12-29T05:30:20Z</time>
      </trkpt>
      <trkpt lat="35.477420" lon="-119.074770">
        <ele>190.533</ele>
        <time>2018-12-29T05:30:40Z</time>
      </trkpt>
      <trkpt lat="35.477040" lon="-119.074730">
        <ele>192.136</ele>
        <time>2018-12-29T05:31:00Z</time>
      </trkpt>
      <trkpt lat="35.476690" lon="-119.074700">
        <ele>192.657</ele>
        <time>2018-12-29T05:31:20Z</time>
      </trkpt>
      <trkpt lat="35.476390" lon="-119.074680">
        <ele>192.960</ele>
        <time>2018-12-29T05:31:40Z</time>
      </trkpt>
      <trkpt lat="35.476220" lon="-119.074670">
        <ele>192.943</ele>
        <time>2018-12-29T05:32:00Z</time>
      </trkpt>
      <trkpt lat="35.476010" lon="-119.074660">
        <ele>193.064</ele>
        <time>2018-12-29T05:32:20Z</time>
      </trkpt>
      <trkpt lat="35.475980" lon="-119.074660">
        <ele>193.010</ele>
        <time>2018-12-29T05:32:40Z</time>
      </trkpt>
      <trkpt lat="35.475460" lon="-119.074650">
        <ele>192.908</ele>
        <time>2018-12-29T05:33:00Z</time>
      </trkpt>
      <trkpt lat="35.474940" lon="-119.074640">
        <ele>192.477</ele>
        <time>2018-12-29T05:33:20Z</time>
      </trkpt>
      <trkpt lat="35.474340" lon="-119.074630">
        <ele>189.795</ele>
        <time>2018-12-29T05:33:40Z</time>
      </trkpt>
      <trkpt lat="35.473920" lon="-119.074630">
        <ele>188.340</ele>
        <time>2018-12-29T05:34:00Z</time>
      </trkpt>
      <trkpt lat="35.473840" lon="-119.074640">
        <ele>187.830</ele>
        <time>2018-12-29T05:34:20Z</time>
      </trkpt>
      <trkpt lat="35.473660" lon="-119.074650">
        <ele>187.284</ele>
        <time>2018-12-29T05:34:40Z</time>
      </trkpt>
      <trkpt lat="35.473290" lon="-119.074650">
        <ele>186.837</ele>
        <time>2018-12-29T05:35:00Z</time>
      </trkpt>
      <trkpt lat="35.473020" lon="-119.074650">
        <ele>186.788</ele>
        <time>2018-12-29T05:35:20Z</time>
      </trkpt>
      <trkpt lat="35.472690" lon="-119.074660">
        <ele>186.531</ele>
        <time>2018-12-29T05:35:40Z</time>
      </trkpt>
      <trkpt lat="35.470350" lon="-119.074660">
        <ele>184.175</ele>
        <time>2018-12-29T05:36:00Z</time>
      </trkpt>
      <trkpt lat="35.470220" lon="-119.074660">
        <ele>183.628</ele>
        <time>2018-12-29T05:36:20Z</time>
      </trkpt>
      <trkpt lat="35.467870" lon="-119.074650">
        <ele>185.920</ele>
        <time>2018-12-29T05:36:40Z</time>
      </trkpt>
      <trkpt lat="35.465940" lon="-119.074660">
        <ele>181.708</ele>
        <time>2018-12-29T05:37:00Z</time>
      </trkpt>
      <trkpt lat="35.463150" lon="-119.074650">
        <ele>178.790</ele>
        <time>2018-12-29T05:37:20Z</time>
      </trkpt>
      <trkpt lat="35.459030" lon="-119.074670">
        <ele>173.298</ele>
        <time>2018-12-29T05:37:40Z</time>
      </trkpt>
      <trkpt lat="35.458320" lon="-119.074670">
        <ele>172.053</ele>
        <time>2018-12-29T05:38:00Z</time>
      </trkpt>
      <trkpt lat="35.457990" lon="-119.074670">
        <ele>171.613</ele>
        <time>2018-12-29T05:38:20Z</time>
      </trkpt>
      <trkpt lat="35.457660" lon="-119.074670">
        <ele>171.557</ele>
        <time>2018-12-29T05:38:40Z</time>
      </trkpt>
      <trkpt lat="35.455880" lon="-119.074710">
        <ele>168.740</ele>
        <time>2018-12-29T05:39:00Z</time>
      </trkpt>
      <trkpt lat="35.455820" lon="-119.074720">
        <ele>168.771</ele>
        <time>2018-12-29T05:39:20Z</time>
      </trkpt>
      <trkpt lat="35.455210" lon="-119.074720">
        <ele>168.214</ele>
        <time>2018-12-29T05:39:40Z</time>
      </trkpt>
      <trkpt lat="35.454980" lon="-119.074720">
        <ele>167.716</ele>
        <time>2018-12-29T05:40:00Z</time>
      </trkpt>
      <trkpt lat="35.454470" lon="-119.074710">
        <ele>166.376</ele>
        <time>2018-12-29T05:40:20Z</time>
      </trkpt>
      <trkpt lat="35.454050" lon="-119.074710">
        <ele>165.613</ele>
        <time>2018-12-29T05:40:40Z</time>
      </trkpt>
      <trkpt lat="35.453550" lon="-119.074700">
        <ele>165.008</ele>
        <time>2018-12-29T05:41:00Z</time>
      </trkpt>
      <trkpt lat="35.453040" lon="-119.074690">
        <ele>163.544</ele>
        <time>2018-12-29T05:41:20Z</time>
      </trkpt>
      <trkpt lat="35.450960" lon="-119.074670">
        <ele>159.322</ele>
        <time>2018-12-29T05:41:40Z</time>
      </trkpt>
      <trkpt lat="35.450390" lon="-119.074680">
        <ele>158.377</ele>
        <time>2018-12-29T05:42:00Z</time>
      </trkpt>
      <trkpt lat="35.449930" lon="-119.074680">
        <ele>157.647</ele>
        <time>2018-12-29T05:42:20Z</time>
      </trkpt>
      <trkpt lat="35.449180" lon="-119.074690">
        <ele>156.541</ele>
        <time>2018-12-29T05:42:40Z</time>
      </trkpt>
      <trkpt lat="35.448270" lon="-119.074690">
        <ele>155.414</ele>
        <time>2018-12-29T05:43:00Z</time>
      </trkpt>
      <trkpt lat="35.447540" lon="-119.074710">
        <ele>154.485</ele>
        <time>2018-12-29T05:43:20Z</time>
      </trkpt>
      <trkpt lat="35.445810" lon="-119.074700">
        <ele>152.688</ele>
        <time>2018-12-29T05:43:40Z</time>
      </trkpt>
      <trkpt lat="35.445300" lon="-119.074690">
        <ele>151.738</ele>
        <time>2018-12-29T05:44:00Z</time>
      </trkpt>
      <trkpt lat="35.444580" lon="-119.074670">
        <ele>150.870</ele>
        <time>2018-12-29T05:44:20Z</time>
      </trkpt>
      <trkpt lat="35.444320" lon="-119.074670">
        <ele>150.517</ele>
        <time>2018-12-29T05:44:40Z</time>
      </trkpt>
      <trkpt lat="35.443670" lon="-119.074670">
        <ele>149.908</ele>
        <time>2018-12-29T05:45:00Z</time>
      </trkpt>
      <trkpt lat="35.443400" lon="-119.074670">
        <ele>149.476</ele>
        <time>2018-12-29T05:45:20Z</time>
      </trkpt>
      <trkpt lat="35.442920" lon="-119.074680">
        <ele>148.664</ele>
        <time>2018-12-29T05:45:40Z</time>
      </trkpt>
      <trkpt lat="35.442500" lon="-119.074680">
        <ele>148.159</ele>
        <time>2018-12-29T05:46:00Z</time>
      </trkpt>
      <trkpt lat="35.441540" lon="-119.074690">
        <ele>147.339</ele>
        <time>2018-12-29T05:46:20Z</time>
      </trkpt>
      <trkpt lat="35.441539" lon="-119.074690">
        <ele>147.393</ele>
        <time>2018-12-29T05:46:40Z</time>
      </trkpt>
      <trkpt lat="35.441450" lon="-119.074800">
        <ele>147.246</ele>
        <time>2018-12-29T05:47:00Z</time>
      </trkpt>
      <trkpt lat="35.441270" lon="-119.074800">
        <ele>147.167</ele>
        <time>2018-12-29T05:47:20Z</time>
      </trkpt>
      <trkpt lat="35.440790" lon="-119.074790">
        <ele>146.560</ele>
        <time>2018-12-29T05:47:40Z</time>
      </trkpt>
      <trkpt lat="35.440270" lon="-119.074800">
        <ele>145.644</ele>
        <time>2018-12-29T05:48:00Z</time>
      </trkpt>
      <trkpt lat="35.439590" lon="-119.074850">
        <ele>144.905</ele>
        <time>2018-12-29T05:48:20Z</time>
      </trkpt>
      <trkpt lat="35.439320" lon="-119.074870">
        <ele>144.615</ele>
        <time>2018-12-29T05:48:40Z</time>
      </trkpt>
      <trkpt lat="35.439130" lon="-119.074880">
        <ele>144.408</ele>
        <time>2018-12-29T05:49:00Z</time>
      </trkpt>
      <trkpt lat="35.438600" lon="-119.074890">
        <ele>144.127</ele>
        <time>2018-12-29T05:49:20Z</time>
      </trkpt>
      <trkpt lat="35.438060" lon="-119.074880">
        <ele>143.595</ele>
        <time>2018-12-29T05:49:40Z</time>
      </trkpt>
      <trkpt lat="35.437870" lon="-119.074890">
        <ele>143.210</ele>
        <time>2018-12-29T05:50:00Z</time>
      </trkpt>
      <trkpt lat="35.437720" lon="-119.074900">
        <ele>142.910</ele>
        <time>2018-12-29T05:50:20Z</time>
      </trkpt>
      <trkpt lat="35.437580" lon="-119.074910">
        <ele>142.774</ele>
        <time>2018-12-29T05:50:40Z</time>
      </trkpt>
      <trkpt lat="35.437470" lon="-119.074930">
        <ele>142.567</ele>
        <time>2018-12-29T05:51:00Z</time>
      </trkpt>
      <trkpt lat="35.437390" lon="-119.074940">
        <ele>142.418</ele>
        <time>2018-12-29T05:51:20Z</time>
      </trkpt>
      <trkpt lat="35.437260" lon="-119.074970">
        <ele>142.231</ele>
        <time>2018-12-29T05:51:40Z</time>
      </trkpt>
      <trkpt lat="35.437200" lon="-119.074980">
        <ele>142.227</ele>
        <time>2018-12-29T05:52:00Z</time>
      </trkpt>
      <trkpt lat="35.437100" lon="-119.075010">
        <ele>142.068</ele>
        <time>2018-12-29T05:52:20Z</time>
      </trkpt>
      <trkpt lat="35.437040" lon="-119.075020">
        <ele>141.914</ele>
        <time>2018-12-29T05:52:40Z</time>
      </trkpt>
      <trkpt lat="35.436990" lon="-119.075040">
        <ele>141.908</ele>
        <time>2018-12-29T05:53:00Z</time>
      </trkpt>
      <trkpt lat="35.436940" lon="-119.075050">
        <ele>141.875</ele>
        <time>2018-12-29T05:53:20Z</time>
      </trkpt>
      <trkpt lat="35.436850" lon="-119.075080">
        <ele>141.743</ele>
        <time>2018-12-29T05:53:40Z</time>
      </trkpt>
      <trkpt lat="35.436790" lon="-119.075100">
        <ele>141.628</ele>
        <time>2018-12-29T05:54:00Z</time>
      </trkpt>
      <trkpt lat="35.436770" lon="-119.075110">
        <ele>141.618</ele>
        <time>2018-12-29T05:54:20Z</time>
      </trkpt>
      <trkpt lat="35.436710" lon="-119.075140">
        <ele>141.592</ele>
        <time>2018-12-29T05:54:40Z</time>
      </trkpt>
      <trkpt lat="35.436630" lon="-119.075170">
        <ele>141.435</ele>
        <time>2018-12-29T05:55:00Z</time>
      </trkpt>
      <trkpt lat="35.436470" lon="-119.075250">
        <ele>141.256</ele>
        <time>2018-12-29T05:55:20Z</time>
      </trkpt>
      <trkpt lat="35.436050" lon="-119.075460">
        <ele>140.719</ele>
        <time>2018-12-29T05:55:40Z</time>
      </trkpt>
      <trkpt lat="35.435890" lon="-119.075560">
        <ele>140.653</ele>
        <time>2018-12-29T05:56:00Z</time>
      </trkpt>
      <trkpt lat="35.435580" lon="-119.075720">
        <ele>140.304</ele>
        <time>2018-12-29T05:56:20Z</time>
      </trkpt>
      <trkpt lat="35.435440" lon="-119.075790">
        <ele>140.114</ele>
        <time>2018-12-29T05:56:40Z</time>
      </trkpt>
      <trkpt lat="35.435280" lon="-119.075860">
        <ele>140.008</ele>
        <time>2018-12-29T05:57:00Z</time>
      </trkpt>
      <trkpt lat="35.435190" lon="-119.075910">
        <ele>139.998</ele>
        <time>2018-12-29T05:57:20Z</time>
      </trkpt>
      <trkpt lat="35.435060" lon="-119.075960">
        <ele>139.856</ele>
        <time>2018-12-29T05:57:40Z</time>
      </trkpt>
      <trkpt lat="35.434970" lon="-119.075980">
        <ele>139.721</ele>
        <time>2018-12-29T05:58:00Z</time>
      </trkpt>
      <trkpt lat="35.434910" lon="-119.076000">
        <ele>139.661</ele>
        <time>2018-12-29T05:58:20Z</time>
      </trkpt>
      <trkpt lat="35.434840" lon="-119.076010">
        <ele>139.625</ele>
        <time>2018-12-29T05:58:40Z</time>
      </trkpt>
      <trkpt lat="35.434700" lon="-119.076040">
        <ele>139.588</ele>
        <time>2018-12-29T05:59:00Z</time>
      </trkpt>
      <trkpt lat="35.434670" lon="-119.076040">
        <ele>139.449</ele>
        <time>2018-12-29T05:59:20Z</time>
      </trkpt>
      <trkpt lat="35.434640" lon="-119.076050">
        <ele>139.452</ele>
        <time>2018-12-29T05:59:40Z</time>
      </trkpt>
      <trkpt lat="35.434550" lon="-119.076060">
        <ele>139.393</ele>
        <time>2018-12-29T06:00:00Z</time>
      </trkpt>
      <trkpt lat="35.434460" lon="-119.076060">
        <ele>139.365</ele>
        <time>2018-12-29T06:00:20Z</time>
      </trkpt>
      <trkpt lat="35.434360" lon="-119.076060">
        <ele>139.221</ele>
        <time>2018-12-29T06:00:40Z</time>
      </trkpt>
      <trkpt lat="35.434260" lon="-119.076060">
        <ele>139.108</ele>
        <time>2018-12-29T06:01:00Z</time>
      </trkpt>
      <trkpt lat="35.434170" lon="-119.076060">
        <ele>139.062</ele>
        <time>2018-12-29T06:01:20Z</time>
      </trkpt>
      <trkpt lat="35.434120" lon="-119.076050">
        <ele>139.010</ele>
        <time>2018-12-29T06:01:40Z</time>
      </trkpt>
      <trkpt lat="35.434030" lon="-119.076040">
        <ele>138.995</ele>
        <time>2018-12-29T06:02:00Z</time>
      </trkpt>
      <trkpt lat="35.433880" lon="-119.076010">
        <ele>138.895</ele>
        <time>2018-12-29T06:02:20Z</time>
      </trkpt>
      <trkpt lat="35.433700" lon="-119.075970">
        <ele>138.619</ele>
        <time>2018-12-29T06:02:40Z</time>
      </trkpt>
      <trkpt lat="35.433580" lon="-119.075930">
        <ele>138.562</ele>
        <time>2018-12-29T06:03:00Z</time>
      </trkpt>
      <trkpt lat="35.433460" lon="-119.075880">
        <ele>138.413</ele>
        <time>2018-12-29T06:03:20Z</time>
      </trkpt>
      <trkpt lat="35.433350" lon="-119.075830">
        <ele>138.376</ele>
        <time>2018-12-29T06:03:40Z</time>
      </trkpt>
      <trkpt lat="35.433230" lon="-119.075760">
        <ele>138.288</ele>
        <time>2018-12-29T06:04:00Z</time>
      </trkpt>
      <trkpt lat="35.433120" lon="-119.075700">
        <ele>138.124</ele>
        <time>2018-12-29T06:04:20Z</time>
      </trkpt>
      <trkpt lat="35.433010" lon="-119.075630">
        <ele>138.126</ele>
        <time>2018-12-29T06:04:40Z</time>
      </trkpt>
      <trkpt lat="35.432840" lon="-119.075500">
        <ele>138.108</ele>
        <time>2018-12-29T06:05:00Z</time>
      </trkpt>
      <trkpt lat="35.432700" lon="-119.075380">
        <ele>138.021</ele>
        <time>2018-12-29T06:05:20Z</time>
      </trkpt>
      <trkpt lat="35.432540" lon="-119.075230">
        <ele>138.079</ele>
        <time>2018-12-29T06:05:40Z</time>
      </trkpt>
      <trkpt lat="35.432500" lon="-119.075190">
        <ele>138.054</ele>
        <time>2018-12-29T06:06:00Z</time>
      </trkpt>
      <trkpt lat="35.432420" lon="-119.075090">
        <ele>138.044</ele>
        <time>2018-12-29T06:06:20Z</time>
      </trkpt>
      <trkpt lat="35.432320" lon="-119.074980">
        <ele>137.948</ele>
        <time>2018-12-29T06:06:40Z</time>
      </trkpt>
      <trkpt lat="35.432250" lon="-119.074870">
        <ele>138.081</ele>
        <time>2018-12-29T06:07:00Z</time>
      </trkpt>
      <trkpt lat="35.432130" lon="-119.074710">
        <ele>138.042</ele>
        <time>2018-12-29T06:07:20Z</time>
      </trkpt>
      <trkpt lat="35.432030" lon="-119.074530">
        <ele>138.045</ele>
        <time>2018-12-29T06:07:40Z</time>
      </trkpt>
      <trkpt lat="35.431820" lon="-119.074180">
        <ele>137.979</ele>
        <time>2018-12-29T06:08:00Z</time>
      </trkpt>
      <trkpt lat="35.431720" lon="-119.073990">
        <ele>137.805</ele>
        <time>2018-12-29T06:08:20Z</time>
      </trkpt>
      <trkpt lat="35.431600" lon="-119.073780">
        <ele>137.725</ele>
        <time>2018-12-29T06:08:40Z</time>
      </trkpt>
      <trkpt lat="35.431390" lon="-119.073420">
        <ele>137.608</ele>
        <time>2018-12-29T06:09:00Z</time>
      </trkpt>
      <trkpt lat="35.431320" lon="-119.073290">
        <ele>137.590</ele>
        <time>2018-12-29T06:09:20Z</time>
      </trkpt>
      <trkpt lat="35.431250" lon="-119.073180">
        <ele>137.558</ele>
        <time>2018-12-29T06:09:40Z</time>
      </trkpt>
      <trkpt lat="35.431180" lon="-119.073080">
        <ele>137.543</ele>
        <time>2018-12-29T06:10:00Z</time>
      </trkpt>
      <trkpt lat="35.431110" lon="-119.072990">
        <ele>137.513</ele>
        <time>2018-12-29T06:10:20Z</time>
      </trkpt>
      <trkpt lat="35.431000" lon="-119.072860">
        <ele>137.517</ele>
        <time>2018-12-29T06:10:40Z</time>
      </trkpt>
      <trkpt lat="35.430870" lon="-119.072710">
        <ele>137.420</ele>
        <time>2018-12-29T06:11:00Z</time>
      </trkpt>
      <trkpt lat="35.430730" lon="-119.072570">
        <ele>137.481</ele>
        <time>2018-12-29T06:11:20Z</time>
      </trkpt>
      <trkpt lat="35.430430" lon="-119.072260">
        <ele>137.434</ele>
        <time>2018-12-29T06:11:40Z</time>
      </trkpt>
      <trkpt lat="35.430320" lon="-119.072130">
        <ele>137.381</ele>
        <time>2018-12-29T06:12:00Z</time>
      </trkpt>
      <trkpt lat="35.430280" lon="-119.072090">
        <ele>137.361</ele>
        <time>2018-12-29T06:12:20Z</time>
      </trkpt>
      <trkpt lat="35.430240" lon="-119.072050">
        <ele>137.317</ele>
        <time>2018-12-29T06:12:40Z</time>
      </trkpt>
      <trkpt lat="35.430230" lon="-119.072030">
        <ele>137.308</ele>
        <time>2018-12-29T06:13:00Z</time>
      </trkpt>
      <trkpt lat="35.430220" lon="-119.072020">
        <ele>137.321</ele>
        <time>2018-12-29T06:13:20Z</time>
      </trkpt>
      <trkpt lat="35.430210" lon="-119.071980">
        <ele>137.379</ele>
        <time>2018-12-29T06:13:40Z</time>
      </trkpt>
      <trkpt lat="35.430200" lon="-119.071910">
        <ele>137.354</ele>
        <time>2018-12-29T06:14:00Z</time>
      </trkpt>
      <trkpt lat="35.429990" lon="-119.071710">
        <ele>137.274</ele>
        <time>2018-12-29T06:14:20Z</time>
      </trkpt>
      <trkpt lat="35.429550" lon="-119.071270">
        <ele>136.938</ele>
        <time>2018-12-29T06:14:40Z</time>
      </trkpt>
      <trkpt lat="35.429340" lon="-119.071030">
        <ele>136.891</ele>
        <time>2018-12-29T06:15:00Z</time>
      </trkpt>
      <trkpt lat="35.428680" lon="-119.070220">
        <ele>136.572</ele>
        <time>2018-12-29T06:15:20Z</time>
      </trkpt>
      <trkpt lat="35.428550" lon="-119.070040">
        <ele>136.455</ele>
        <time>2018-12-29T06:15:40Z</time>
      </trkpt>
      <trkpt lat="35.428460" lon="-119.069930">
        <ele>136.415</ele>
        <time>2018-12-29T06:16:00Z</time>
      </trkpt>
      <trkpt lat="35.428090" lon="-119.069390">
        <ele>136.465</ele>
        <time>2018-12-29T06:16:20Z</time>
      </trkpt>
      <trkpt lat="35.427640" lon="-119.068670">
        <ele>136.411</ele>
        <time>2018-12-29T06:16:40Z</time>
      </trkpt>
      <trkpt lat="35.427280" lon="-119.068070">
        <ele>136.308</ele>
        <time>2018-12-29T06:17:00Z</time>
      </trkpt>
      <trkpt lat="35.426940" lon="-119.067460">
        <ele>136.254</ele>
        <time>2018-12-29T06:17:20Z</time>
      </trkpt>
      <trkpt lat="35.426690" lon="-119.066900">
        <ele>136.222</ele>
        <time>2018-12-29T06:17:40Z</time>
      </trkpt>
      <trkpt lat="35.426430" lon="-119.066290">
        <ele>136.277</ele>
        <time>2018-12-29T06:18:00Z</time>
      </trkpt>
      <trkpt lat="35.426140" lon="-119.065630">
        <ele>136.127</ele>
        <time>2018-12-29T06:18:20Z</time>
      </trkpt>
      <trkpt lat="35.425810" lon="-119.064910">
        <ele>136.031</ele>
        <time>2018-12-29T06:18:40Z</time>
      </trkpt>
      <trkpt lat="35.425610" lon="-119.064540">
        <ele>135.964</ele>
        <time>2018-12-29T06:19:00Z</time>
      </trkpt>
      <trkpt lat="35.425530" lon="-119.064410">
        <ele>135.935</ele>
        <time>2018-12-29T06:19:20Z</time>
      </trkpt>
      <trkpt lat="35.425380" lon="-119.064190">
        <ele>135.998</ele>
        <time>2018-12-29T06:19:40Z</time>
      </trkpt>
      <trkpt lat="35.424990" lon="-119.063640">
        <ele>135.858</ele>
        <time>2018-12-29T06:20:00Z</time>
      </trkpt>
      <trkpt lat="35.424710" lon="-119.063280">
        <ele>135.652</ele>
        <time>2018-12-29T06:20:20Z</time>
      </trkpt>
      <trkpt lat="35.424180" lon="-119.062700">
        <ele>135.417</ele>
        <time>2018-12-29T06:20:40Z</time>
      </trkpt>
      <trkpt lat="35.423870" lon="-119.062440">
        <ele>135.308</ele>
        <time>2018-12-29T06:21:00Z</time>
      </trkpt>
      <trkpt lat="35.423650" lon="-119.062240">
        <ele>135.378</ele>
        <time>2018-12-29T06:21:20Z</time>
      </trkpt>
      <trkpt lat="35.423380" lon="-119.062050">
        <ele>135.266</ele>
        <time>2018-12-29T06:21:40Z</time>
      </trkpt>
      <trkpt lat="35.423090" lon="-119.061880">
        <ele>135.171</ele>
        <time>2018-12-29T06:22:00Z</time>
      </trkpt>
      <trkpt lat="35.422540" lon="-119.061560">
        <ele>134.951</ele>
        <time>2018-12-29T06:22:20Z</time>
      </trkpt>
      <trkpt lat="35.422190" lon="-119.061410">
        <ele>134.995</ele>
        <time>2018-12-29T06:22:40Z</time>
      </trkpt>
      <trkpt lat="35.421680" lon="-119.061250">
        <ele>134.718</ele>
        <time>2018-12-29T06:23:00Z</time>
      </trkpt>
      <trkpt lat="35.421670" lon="-119.061240">
        <ele>134.779</ele>
        <time>2018-12-29T06:23:20Z</time>
      </trkpt>
      <trkpt lat="35.421350" lon="-119.061140">
        <ele>134.872</ele>
        <time>2018-12-29T06:23:40Z</time>
      </trkpt>
      <trkpt lat="35.420920" lon="-119.061020">
        <ele>135.299</ele>
        <time>2018-12-29T06:24:00Z</time>
      </trkpt>
      <trkpt lat="35.420290" lon="-119.060850">
        <ele>135.407</ele>
        <time>2018-12-29T06:24:20Z</time>
      </trkpt>
      <trkpt lat="35.419600" lon="-119.060670">
        <ele>135.127</ele>
        <time>2018-12-29T06:24:40Z</time>
      </trkpt>
      <trkpt lat="35.419080" lon="-119.060540">
        <ele>133.808</ele>
        <time>2018-12-29T06:25:00Z</time>
      </trkpt>
      <trkpt lat="35.418460" lon="-119.060360">
        <ele>132.682</ele>
        <time>2018-12-29T06:25:20Z</time>
      </trkpt>
      <trkpt lat="35.418200" lon="-119.060280">
        <ele>132.480</ele>
        <time>2018-12-29T06:25:40Z</time>
      </trkpt>
      <trkpt lat="35.417850" lon="-119.060140">
        <ele>132.275</ele>
        <time>2018-12-29T06:26:00Z</time>
      </trkpt>
      <trkpt lat="35.417600" lon="-119.060040">
        <ele>132.115</ele>
        <time>2018-12-29T06:26:20Z</time>
      </trkpt>
      <trkpt lat="35.417310" lon="-119.059920">
        <ele>132.189</ele>
        <time>2018-12-29T06:26:40Z</time>
      </trkpt>
      <trkpt lat="35.417050" lon="-119.059780">
        <ele>132.132</ele>
        <time>2018-12-29T06:27:00Z</time>
      </trkpt>
      <trkpt lat="35.416740" lon="-119.059600">
        <ele>132.193</ele>
        <time>2018-12-29T06:27:20Z</time>
      </trkpt>
      <trkpt lat="35.416390" lon="-119.059370">
        <ele>132.256</ele>
        <time>2018-12-29T06:27:40Z</time>
      </trkpt>
      <trkpt lat="35.415950" lon="-119.059050">
        <ele>132.248</ele>
        <time>2018-12-29T06:28:00Z</time>
      </trkpt>
      <trkpt lat="35.415550" lon="-119.058720">
        <ele>132.161</ele>
        <time>2018-12-29T06:28:20Z</time>
      </trkpt>
      <trkpt lat="35.415220" lon="-119.058420">
        <ele>131.917</ele>
        <time>2018-12-29T06:28:40Z</time>
      </trkpt>
      <trkpt lat="35.414840" lon="-119.058050">
        <ele>131.908</ele>
        <time>2018-12-29T06:29:00Z</time>
      </trkpt>
      <trkpt lat="35.414780" lon="-119.057960">
        <ele>131.947</ele>
        <time>2018-12-29T06:29:20Z</time>
      </trkpt>
      <trkpt lat="35.414760" lon="-119.057920">
        <ele>131.965</ele>
        <time>2018-12-29T06:29:40Z</time>
      </trkpt>
      <trkpt lat="35.414710" lon="-119.057860">
        <ele>131.970</ele>
        <time>2018-12-29T06:30:00Z</time>
      </trkpt>
      <trkpt lat="35.414520" lon="-119.057640">
        <ele>131.930</ele>
        <time>2018-12-29T06:30:20Z</time>
      </trkpt>
      <trkpt lat="35.413100" lon="-119.056040">
        <ele>132.084</ele>
        <time>2018-12-29T06:30:40Z</time>
      </trkpt>
      <trkpt lat="35.412630" lon="-119.055490">
        <ele>132.017</ele>
        <time>2018-12-29T06:31:00Z</time>
      </trkpt>
      <trkpt lat="35.412370" lon="-119.055200">
        <ele>132.068</ele>
        <time>2018-12-29T06:31:20Z</time>
      </trkpt>
      <trkpt lat="35.412270" lon="-119.055090">
        <ele>131.911</ele>
        <time>2018-12-29T06:31:40Z</time>
      </trkpt>
      <trkpt lat="35.412080" lon="-119.054890">
        <ele>131.999</ele>
        <time>2018-12-29T06:32:00Z</time>
      </trkpt>
      <trkpt lat="35.411600" lon="-119.054340">
        <ele>132.107</ele>
        <time>2018-12-29T06:32:20Z</time>
      </trkpt>
      <trkpt lat="35.409560" lon="-119.052050">
        <ele>132.827</ele>
        <time>2018-12-29T06:32:40Z</time>
      </trkpt>
      <trkpt lat="35.408930" lon="-119.051320">
        <ele>132.108</ele>
        <time>2018-12-29T06:33:00Z</time>
      </trkpt>
      <trkpt lat="35.406580" lon="-119.048750">
        <ele>129.212</ele>
        <time>2018-12-29T06:33:20Z</time>
      </trkpt>
      <trkpt lat="35.406240" lon="-119.048370">
        <ele>131.160</ele>
        <time>2018-12-29T06:33:40Z</time>
      </trkpt>
      <trkpt lat="35.406242" lon="-119.048368">
        <ele>131.195</ele>
        <time>2018-12-29T06:34:00Z</time>
      </trkpt>
      <trkpt lat="35.406140" lon="-119.048330">
        <ele>130.355</ele>
        <time>2018-12-29T06:34:20Z</time>
      </trkpt>
      <trkpt lat="35.406120" lon="-119.048320">
        <ele>130.269</ele>
        <time>2018-12-29T06:34:40Z</time>
      </trkpt>
      <trkpt lat="35.406100" lon="-119.048310">
        <ele>130.062</ele>
        <time>2018-12-29T06:35:00Z</time>
      </trkpt>
      <trkpt lat="35.406030" lon="-119.048240">
        <ele>129.413</ele>
        <time>2018-12-29T06:35:20Z</time>
      </trkpt>
      <trkpt lat="35.405940" lon="-119.048170">
        <ele>129.066</ele>
        <time>2018-12-29T06:35:40Z</time>
      </trkpt>
      <trkpt lat="35.405790" lon="-119.048050">
        <ele>129.179</ele>
        <time>2018-12-29T06:36:00Z</time>
      </trkpt>
      <trkpt lat="35.405700" lon="-119.047980">
        <ele>129.205</ele>
        <time>2018-12-29T06:36:20Z</time>
      </trkpt>
      <trkpt lat="35.405630" lon="-119.047940">
        <ele>129.525</ele>
        <time>2018-12-29T06:36:40Z</time>
      </trkpt>
      <trkpt lat="35.405570" lon="-119.047900">
        <ele>129.808</ele>
        <time>2018-12-29T06:37:00Z</time>
      </trkpt>
      <trkpt lat="35.405500" lon="-119.047860">
        <ele>130.170</ele>
        <time>2018-12-29T06:37:20Z</time>
      </trkpt>
      <trkpt lat="35.405440" lon="-119.047830">
        <ele>130.398</ele>
        <time>2018-12-29T06:37:40Z</time>
      </trkpt>
      <trkpt lat="35.405380" lon="-119.047790">
        <ele>130.393</ele>
        <time>2018-12-29T06:38:00Z</time>
      </trkpt>
      <trkpt lat="35.405210" lon="-119.047700">
        <ele>130.363</ele>
        <time>2018-12-29T06:38:20Z</time>
      </trkpt>
      <trkpt lat="35.404870" lon="-119.047530">
        <ele>129.977</ele>
        <time>2018-12-29T06:38:40Z</time>
      </trkpt>
      <trkpt lat="35.404760" lon="-119.047480">
        <ele>129.620</ele>
        <time>2018-12-29T06:39:00Z</time>
      </trkpt>
      <trkpt lat="35.404660" lon="-119.047420">
        <ele>129.271</ele>
        <time>2018-12-29T06:39:20Z</time>
      </trkpt>
      <trkpt lat="35.404600" lon="-119.047380">
        <ele>128.944</ele>
        <time>2018-12-29T06:39:40Z</time>
      </trkpt>
      <trkpt lat="35.404530" lon="-119.047350">
        <ele>128.886</ele>
        <time>2018-12-29T06:40:00Z</time>
      </trkpt>
      <trkpt lat="35.404470" lon="-119.047310">
        <ele>128.860</ele>
        <time>2018-12-29T06:40:20Z</time>
      </trkpt>
      <trkpt lat="35.404420" lon="-119.047280">
        <ele>128.726</ele>
        <time>2018-12-29T06:40:40Z</time>
      </trkpt>
      <trkpt lat="35.404350" lon="-119.047220">
        <ele>128.608</ele>
        <time>2018-12-29T06:41:00Z</time>
      </trkpt>
      <trkpt lat="35.404280" lon="-119.047170">
        <ele>128.591</ele>
        <time>2018-12-29T06:41:20Z</time>
      </trkpt>
      <trkpt lat="35.404180" lon="-119.047090">
        <ele>128.319</ele>
        <time>2018-12-29T06:41:40Z</time>
      </trkpt>
      <trkpt lat="35.404100" lon="-119.047020">
        <ele>128.214</ele>
        <time>2018-12-29T06:42:00Z</time>
      </trkpt>
      <trkpt lat="35.404050" lon="-119.046980">
        <ele>128.154</ele>
        <time>2018-12-29T06:42:20Z</time>
      </trkpt>
      <trkpt lat="35.403990" lon="-119.046910">
        <ele>127.978</ele>
        <time>2018-12-29T06:42:40Z</time>
      </trkpt>
      <trkpt lat="35.403900" lon="-119.046820">
        <ele>127.621</ele>
        <time>2018-12-29T06:43:00Z</time>
      </trkpt>
      <trkpt lat="35.403850" lon="-119.046760">
        <ele>127.542</ele>
        <time>2018-12-29T06:43:20Z</time>
      </trkpt>
      <trkpt lat="35.403800" lon="-119.046690">
        <ele>127.455</ele>
        <time>2018-12-29T06:43:40Z</time>
      </trkpt>
      <trkpt lat="35.403760" lon="-119.046650">
        <ele>127.352</ele>
        <time>2018-12-29T06:44:00Z</time>
      </trkpt>
      <trkpt lat="35.403700" lon="-119.046570">
        <ele>127.253</ele>
        <time>2018-12-29T06:44:20Z</time>
      </trkpt>
      <trkpt lat="35.403630" lon="-119.046480">
        <ele>127.208</ele>
        <time>2018-12-29T06:44:40Z</time>
      </trkpt>
      <trkpt lat="35.403580" lon="-119.046390">
        <ele>127.108</ele>
        <time>2018-12-29T06:45:00Z</time>
      </trkpt>
      <trkpt lat="35.403520" lon="-119.046290">
        <ele>127.078</ele>
        <time>2018-12-29T06:45:20Z</time>
      </trkpt>
      <trkpt lat="35.403490" lon="-119.046240">
        <ele>127.026</ele>
        <time>2018-12-29T06:45:40Z</time>
      </trkpt>
      <trkpt lat="35.403390" lon="-119.046080">
        <ele>126.921</ele>
        <time>2018-12-29T06:46:00Z</time>
      </trkpt>
      <trkpt lat="35.403310" lon="-119.045900">
        <ele>126.851</ele>
        <time>2018-12-29T06:46:20Z</time>
      </trkpt>
      <trkpt lat="35.403290" lon="-119.045860">
        <ele>126.885</ele>
        <time>2018-12-29T06:46:40Z</time>
      </trkpt>
      <trkpt lat="35.403260" lon="-119.045790">
        <ele>126.898</ele>
        <time>2018-12-29T06:47:00Z</time>
      </trkpt>
      <trkpt lat="35.403230" lon="-119.045720">
        <ele>126.829</ele>
        <time>2018-12-29T06:47:20Z</time>
      </trkpt>
      <trkpt lat="35.403200" lon="-119.045650">
        <ele>126.852</ele>
        <time>2018-12-29T06:47:40Z</time>
      </trkpt>
      <trkpt lat="35.403180" lon="-119.045590">
        <ele>126.763</ele>
        <time>2018-12-29T06:48:00Z</time>
      </trkpt>
      <trkpt lat="35.403160" lon="-119.045520">
        <ele>126.744</ele>
        <time>2018-12-29T06:48:20Z</time>
      </trkpt>
      <trkpt lat="35.403150" lon="-119.045510">
        <ele>126.718</ele>
        <time>2018-12-29T06:48:40Z</time>
      </trkpt>
      <trkpt lat="35.403060" lon="-119.045170">
        <ele>126.708</ele>
        <time>2018-12-29T06:49:00Z</time>
      </trkpt>
      <trkpt lat="35.403010" lon="-119.044570">
        <ele>126.959</ele>
        <time>2018-12-29T06:49:20Z</time>
      </trkpt>
      <trkpt lat="35.402960" lon="-119.044030">
        <ele>127.137</ele>
        <time>2018-12-29T06:49:40Z</time>
      </trkpt>
      <trkpt lat="35.402950" lon="-119.043880">
        <ele>127.252</ele>
        <time>2018-12-29T06:50:00Z</time>
      </trkpt>
      <trkpt lat="35.402930" lon="-119.043720">
        <ele>127.212</ele>
        <time>2018-12-29T06:50:20Z</time>
      </trkpt>
      <trkpt lat="35.402920" lon="-119.043640">
        <ele>127.336</ele>
        <time>2018-12-29T06:50:40Z</time>
      </trkpt>
      <trkpt lat="35.402900" lon="-119.043550">
        <ele>127.339</ele>
        <time>2018-12-29T06:51:00Z</time>
      </trkpt>
      <trkpt lat="35.402890" lon="-119.043490">
        <ele>127.360</ele>
        <time>2018-12-29T06:51:20Z</time>
      </trkpt>
      <trkpt lat="35.402870" lon="-119.043410">
        <ele>127.343</ele>
        <time>2018-12-29T06:51:40Z</time>
      </trkpt>
      <trkpt lat="35.402860" lon="-119.043340">
        <ele>127.375</ele>
        <time>2018-12-29T06:52:00Z</time>
      </trkpt>
      <trkpt lat="35.402840" lon="-119.043250">
        <ele>127.328</ele>
        <time>2018-12-29T06:52:20Z</time>
      </trkpt>
      <trkpt lat="35.402820" lon="-119.043180">
        <ele>127.320</ele>
        <time>2018-12-29T06:52:40Z</time>
      </trkpt>
      <trkpt lat="35.402800" lon="-119.043110">
        <ele>127.308</ele>
        <time>2018-12-29T06:53:00Z</time>
      </trkpt>
      <trkpt lat="35.402760" lon="-119.042990">
        <ele>127.330</ele>
        <time>2018-12-29T06:53:20Z</time>
      </trkpt>
      <trkpt lat="35.402730" lon="-119.042900">
        <ele>127.348</ele>
        <time>2018-12-29T06:53:40Z</time>
      </trkpt>
      <trkpt lat="35.402700" lon="-119.042820">
        <ele>127.693</ele>
        <time>2018-12-29T06:54:00Z</time>
      </trkpt>
      <trkpt lat="35.402670" lon="-119.042740">
        <ele>128.013</ele>
        <time>2018-12-29T06:54:20Z</time>
      </trkpt>
      <trkpt lat="35.402620" lon="-119.042630">
        <ele>128.667</ele>
        <time>2018-12-29T06:54:40Z</time>
      </trkpt>
      <trkpt lat="35.402410" lon="-119.042180">
        <ele>129.020</ele>
        <time>2018-12-29T06:55:00Z</time>
      </trkpt>
      <trkpt lat="35.402200" lon="-119.041770">
        <ele>127.431</ele>
        <time>2018-12-29T06:55:20Z</time>
      </trkpt>
      <trkpt lat="35.402110" lon="-119.041640">
        <ele>129.124</ele>
        <time>2018-12-29T06:55:40Z</time>
      </trkpt>
      <trkpt lat="35.402110" lon="-119.041640">
        <ele>129.117</ele>
        <time>2018-12-29T06:56:00Z</time>
      </trkpt>
      <trkpt lat="35.402070" lon="-119.041560">
        <ele>130.487</ele>
        <time>2018-12-29T06:56:20Z</time>
      </trkpt>
      <trkpt lat="35.402070" lon="-119.041550">
        <ele>130.515</ele>
        <time>2018-12-29T06:56:40Z</time>
      </trkpt>
      <trkpt lat="35.402000" lon="-119.041390">
        <ele>129.008</ele>
        <time>2018-12-29T06:57:00Z</time>
      </trkpt>
      <trkpt lat="35.401990" lon="-119.041380">
        <ele>128.764</ele>
        <time>2018-12-29T06:57:20Z</time>
      </trkpt>
      <trkpt lat="35.401990" lon="-119.041370">
        <ele>128.792</ele>
        <time>2018-12-29T06:57:40Z</time>
      </trkpt>
      <trkpt lat="35.401910" lon="-119.041190">
        <ele>127.137</ele>
        <time>2018-12-29T06:58:00Z</time>
      </trkpt>
      <trkpt lat="35.401710" lon="-119.040740">
        <ele>128.667</ele>
        <time>2018-12-29T06:58:20Z</time>
      </trkpt>
      <trkpt lat="35.401310" lon="-119.039830">
        <ele>127.811</ele>
        <time>2018-12-29T06:58:40Z</time>
      </trkpt>
      <trkpt lat="35.401190" lon="-119.039570">
        <ele>126.994</ele>
        <time>2018-12-29T06:59:00Z</time>
      </trkpt>
      <trkpt lat="35.400990" lon="-119.039140">
        <ele>126.075</ele>
        <time>2018-12-29T06:59:20Z</time>
      </trkpt>
      <trkpt lat="35.400610" lon="-119.038330">
        <ele>125.718</ele>
        <time>2018-12-29T06:59:40Z</time>
      </trkpt>
      <trkpt lat="35.400300" lon="-119.037750">
        <ele>125.959</ele>
        <time>2018-12-29T07:00:00Z</time>
      </trkpt>
      <trkpt lat="35.400210" lon="-119.037570">
        <ele>125.903</ele>
        <time>2018-12-29T07:00:20Z</time>
      </trkpt>
      <trkpt lat="35.400000" lon="-119.037200">
        <ele>127.523</ele>
        <time>2018-12-29T07:00:40Z</time>
      </trkpt>
      <trkpt lat="35.399840" lon="-119.036920">
        <ele>128.908</ele>
        <time>2018-12-29T07:01:00Z</time>
      </trkpt>
      <trkpt lat="35.399650" lon="-119.036570">
        <ele>128.988</ele>
        <time>2018-12-29T07:01:20Z</time>
      </trkpt>
      <trkpt lat="35.399410" lon="-119.036190">
        <ele>128.996</ele>
        <time>2018-12-29T07:01:40Z</time>
      </trkpt>
      <trkpt lat="35.399100" lon="-119.035710">
        <ele>129.041</ele>
        <time>2018-12-29T07:02:00Z</time>
      </trkpt>
      <trkpt lat="35.398910" lon="-119.035400">
        <ele>129.031</ele>
        <time>2018-12-29T07:02:20Z</time>
      </trkpt>
      <trkpt lat="35.398710" lon="-119.035120">
        <ele>129.135</ele>
        <time>2018-12-29T07:02:40Z</time>
      </trkpt>
      <trkpt lat="35.398510" lon="-119.034860">
        <ele>129.088</ele>
        <time>2018-12-29T07:03:00Z</time>
      </trkpt>
      <trkpt lat="35.398290" lon="-119.034580">
        <ele>129.059</ele>
        <time>2018-12-29T07:03:20Z</time>
      </trkpt>
      <trkpt lat="35.397980" lon="-119.034150">
        <ele>128.922</ele>
        <time>2018-12-29T07:03:40Z</time>
      </trkpt>
      <trkpt lat="35.397230" lon="-119.033170">
        <ele>125.637</ele>
        <time>2018-12-29T07:04:00Z</time>
      </trkpt>
      <trkpt lat="35.397010" lon="-119.032870">
        <ele>127.549</ele>
        <time>2018-12-29T07:04:20Z</time>
      </trkpt>
      <trkpt lat="35.396910" lon="-119.032740">
        <ele>128.313</ele>
        <time>2018-12-29T07:04:40Z</time>
      </trkpt>
      <trkpt lat="35.396320" lon="-119.031980">
        <ele>129.008</ele>
        <time>2018-12-29T07:05:00Z</time>
      </trkpt>
      <trkpt lat="35.395530" lon="-119.030880">
        <ele>124.246</ele>
        <time>2018-12-29T07:05:20Z</time>
      </trkpt>
      <trkpt lat="35.395400" lon="-119.030720">
        <ele>124.134</ele>
        <time>2018-12-29T07:05:40Z</time>
      </trkpt>
      <trkpt lat="35.395150" lon="-119.030380">
        <ele>124.299</ele>
        <time>2018-12-29T07:06:00Z</time>
      </trkpt>
      <trkpt lat="35.394980" lon="-119.030150">
        <ele>126.729</ele>
        <time>2018-12-29T07:06:20Z</time>
      </trkpt>
      <trkpt lat="35.394910" lon="-119.030070">
        <ele>128.173</ele>
        <time>2018-12-29T07:06:40Z</time>
      </trkpt>
      <trkpt lat="35.394800" lon="-119.029930">
        <ele>128.996</ele>
        <time>2018-12-29T07:07:00Z</time>
      </trkpt>
      <trkpt lat="35.394770" lon="-119.029900">
        <ele>128.967</ele>
        <time>2018-12-29T07:07:20Z</time>
      </trkpt>
      <trkpt lat="35.394460" lon="-119.029500">
        <ele>128.930</ele>
        <time>2018-12-29T07:07:40Z</time>
      </trkpt>
      <trkpt lat="35.394310" lon="-119.029300">
        <ele>129.136</ele>
        <time>2018-12-29T07:08:00Z</time>
      </trkpt>
      <trkpt lat="35.394310" lon="-119.029290">
        <ele>129.117</ele>
        <time>2018-12-29T07:08:20Z</time>
      </trkpt>
      <trkpt lat="35.394300" lon="-119.029280">
        <ele>129.118</ele>
        <time>2018-12-29T07:08:40Z</time>
      </trkpt>
      <trkpt lat="35.394130" lon="-119.029070">
        <ele>129.008</ele>
        <time>2018-12-29T07:09:00Z</time>
      </trkpt>
      <trkpt lat="35.393870" lon="-119.028730">
        <ele>129.186</ele>
        <time>2018-12-29T07:09:20Z</time>
      </trkpt>
      <trkpt lat="35.393150" lon="-119.027770">
        <ele>125.944</ele>
        <time>2018-12-29T07:09:40Z</time>
      </trkpt>
      <trkpt lat="35.392820" lon="-119.027350">
        <ele>127.529</ele>
        <time>2018-12-29T07:10:00Z</time>
      </trkpt>
      <trkpt lat="35.392480" lon="-119.026910">
        <ele>126.029</ele>
        <time>2018-12-29T07:10:20Z</time>
      </trkpt>
      <trkpt lat="35.392100" lon="-119.026440">
        <ele>125.973</ele>
        <time>2018-12-29T07:10:40Z</time>
      </trkpt>
      <trkpt lat="35.391370" lon="-119.025500">
        <ele>125.946</ele>
        <time>2018-12-29T07:11:00Z</time>
      </trkpt>
      <trkpt lat="35.390740" lon="-119.024690">
        <ele>125.817</ele>
        <time>2018-12-29T07:11:20Z</time>
      </trkpt>
      <trkpt lat="35.390660" lon="-119.024590">
        <ele>125.860</ele>
        <time>2018-12-29T07:11:40Z</time>
      </trkpt>
      <trkpt lat="35.390410" lon="-119.024250">
        <ele>125.449</ele>
        <time>2018-12-29T07:12:00Z</time>
      </trkpt>
      <trkpt lat="35.389810" lon="-119.023460">
        <ele>124.402</ele>
        <time>2018-12-29T07:12:20Z</time>
      </trkpt>
      <trkpt lat="35.389530" lon="-119.023080">
        <ele>124.322</ele>
        <time>2018-12-29T07:12:40Z</time>
      </trkpt>
      <trkpt lat="35.389360" lon="-119.022830">
        <ele>124.308</ele>
        <time>2018-12-29T07:13:00Z</time>
      </trkpt>
      <trkpt lat="35.388750" lon="-119.021930">
        <ele>124.397</ele>
        <time>2018-12-29T07:13:20Z</time>
      </trkpt>
      <trkpt lat="35.388751" lon="-119.021931">
        <ele>124.385</ele>
        <time>2018-12-29T07:13:40Z</time>
      </trkpt>
      <trkpt lat="35.388640" lon="-119.021880">
        <ele>124.340</ele>
        <time>2018-12-29T07:14:00Z</time>
      </trkpt>
      <trkpt lat="35.388630" lon="-119.021870">
        <ele>124.310</ele>
        <time>2018-12-29T07:14:20Z</time>
      </trkpt>
      <trkpt lat="35.388610" lon="-119.021850">
        <ele>124.374</ele>
        <time>2018-12-29T07:14:40Z</time>
      </trkpt>
      <trkpt lat="35.388570" lon="-119.021810">
        <ele>124.357</ele>
        <time>2018-12-29T07:15:00Z</time>
      </trkpt>
      <trkpt lat="35.388120" lon="-119.021120">
        <ele>124.378</ele>
        <time>2018-12-29T07:15:20Z</time>
      </trkpt>
      <trkpt lat="35.387980" lon="-119.020840">
        <ele>124.391</ele>
        <time>2018-12-29T07:15:40Z</time>
      </trkpt>
      <trkpt lat="35.387979" lon="-119.020838">
        <ele>124.337</ele>
        <time>2018-12-29T07:16:00Z</time>
      </trkpt>
      <trkpt lat="35.387430" lon="-119.019940">
        <ele>124.149</ele>
        <time>2018-12-29T07:16:20Z</time>
      </trkpt>
      <trkpt lat="35.387020" lon="-119.019260">
        <ele>124.013</ele>
        <time>2018-12-29T07:16:40Z</time>
      </trkpt>
      <trkpt lat="35.387017" lon="-119.019260">
        <ele>124.008</ele>
        <time>2018-12-29T07:17:00Z</time>
      </trkpt>
      <trkpt lat="35.386980" lon="-119.019270">
        <ele>124.036</ele>
        <time>2018-12-29T07:17:20Z</time>
      </trkpt>
      <trkpt lat="35.386950" lon="-119.019280">
        <ele>124.084</ele>
        <time>2018-12-29T07:17:40Z</time>
      </trkpt>
      <trkpt lat="35.386880" lon="-119.019290">
        <ele>124.079</ele>
        <time>2018-12-29T07:18:00Z</time>
      </trkpt>
      <trkpt lat="35.386850" lon="-119.019290">
        <ele>124.049</ele>
        <time>2018-12-29T07:18:20Z</time>
      </trkpt>
      <trkpt lat="35.386810" lon="-119.019280">
        <ele>124.023</ele>
        <time>2018-12-29T07:18:40Z</time>
      </trkpt>
      <trkpt lat="35.386740" lon="-119.019250">
        <ele>124.046</ele>
        <time>2018-12-29T07:19:00Z</time>
      </trkpt>
      <trkpt lat="35.386720" lon="-119.019240">
        <ele>124.057</ele>
        <time>2018-12-29T07:19:20Z</time>
      </trkpt>
      <trkpt lat="35.386650" lon="-119.019180">
        <ele>124.060</ele>
        <time>2018-12-29T07:19:40Z</time>
      </trkpt>
      <trkpt lat="35.386590" lon="-119.019120">
        <ele>124.077</ele>
        <time>2018-12-29T07:20:00Z</time>
      </trkpt>
      <trkpt lat="35.386540" lon="-119.019060">
        <ele>124.061</ele>
        <time>2018-12-29T07:20:20Z</time>
      </trkpt>
      <trkpt lat="35.386510" lon="-119.018960">
        <ele>124.027</ele>
        <time>2018-12-29T07:20:40Z</time>
      </trkpt>
      <trkpt lat="35.386410" lon="-119.018880">
        <ele>124.008</ele>
        <time>2018-12-29T07:21:00Z</time>
      </trkpt>
      <trkpt lat="35.386340" lon="-119.018840">
        <ele>124.050</ele>
        <time>2018-12-29T07:21:20Z</time>
      </trkpt>
      <trkpt lat="35.386290" lon="-119.018830">
        <ele>124.078</ele>
        <time>2018-12-29T07:21:40Z</time>
      </trkpt>
      <trkpt lat="35.386220" lon="-119.018820">
        <ele>124.083</ele>
        <time>2018-12-29T07:22:00Z</time>
      </trkpt>
      <trkpt lat="35.386160" lon="-119.018820">
        <ele>124.063</ele>
        <time>2018-12-29T07:22:20Z</time>
      </trkpt>
      <trkpt lat="35.385760" lon="-119.018830">
        <ele>124.037</ele>
        <time>2018-12-29T07:22:40Z</time>
      </trkpt>
      <trkpt lat="35.385160" lon="-119.018830">
        <ele>123.990</ele>
        <time>2018-12-29T07:23:00Z</time>
      </trkpt>
      <trkpt lat="35.384800" lon="-119.018840">
        <ele>123.951</ele>
        <time>2018-12-29T07:23:20Z</time>
      </trkpt>
      <trkpt lat="35.384210" lon="-119.018850">
        <ele>123.994</ele>
        <time>2018-12-29T07:23:40Z</time>
      </trkpt>
      <trkpt lat="35.383860" lon="-119.018840">
        <ele>123.957</ele>
        <time>2018-12-29T07:24:00Z</time>
      </trkpt>
      <trkpt lat="35.383260" lon="-119.018850">
        <ele>123.800</ele>
        <time>2018-12-29T07:24:20Z</time>
      </trkpt>
      <trkpt lat="35.382900" lon="-119.018850">
        <ele>123.820</ele>
        <time>2018-12-29T07:24:40Z</time>
      </trkpt>
      <trkpt lat="35.381950" lon="-119.018850">
        <ele>123.708</ele>
        <time>2018-12-29T07:25:00Z</time>
      </trkpt>
      <trkpt lat="35.381870" lon="-119.018850">
        <ele>123.758</ele>
        <time>2018-12-29T07:25:20Z</time>
      </trkpt>
      <trkpt lat="35.381610" lon="-119.018850">
        <ele>123.726</ele>
        <time>2018-12-29T07:25:40Z</time>
      </trkpt>
      <trkpt lat="35.381360" lon="-119.018850">
        <ele>123.711</ele>
        <time>2018-12-29T07:26:00Z</time>
      </trkpt>
      <trkpt lat="35.380990" lon="-119.018850">
        <ele>123.731</ele>
        <time>2018-12-29T07:26:20Z</time>
      </trkpt>
      <trkpt lat="35.380670" lon="-119.018850">
        <ele>123.775</ele>
        <time>2018-12-29T07:26:40Z</time>
      </trkpt>
      <trkpt lat="35.380430" lon="-119.018850">
        <ele>123.748</ele>
        <time>2018-12-29T07:27:00Z</time>
      </trkpt>
      <trkpt lat="35.380050" lon="-119.018850">
        <ele>123.799</ele>
        <time>2018-12-29T07:27:20Z</time>
      </trkpt>
      <trkpt lat="35.379870" lon="-119.018850">
        <ele>123.722</ele>
        <time>2018-12-29T07:27:40Z</time>
      </trkpt>
      <trkpt lat="35.379100" lon="-119.018860">
        <ele>123.875</ele>
        <time>2018-12-29T07:28:00Z</time>
      </trkpt>
      <trkpt lat="35.378980" lon="-119.018860">
        <ele>123.828</ele>
        <time>2018-12-29T07:28:20Z</time>
      </trkpt>
      <trkpt lat="35.378630" lon="-119.018860">
        <ele>123.820</ele>
        <time>2018-12-29T07:28:40Z</time>
      </trkpt>
      <trkpt lat="35.378420" lon="-119.018860">
        <ele>123.908</ele>
        <time>2018-12-29T07:29:00Z</time>
      </trkpt>
      <trkpt lat="35.378140" lon="-119.018860">
        <ele>123.920</ele>
        <time>2018-12-29T07:29:20Z</time>
      </trkpt>
      <trkpt lat="35.377660" lon="-119.018860">
        <ele>124.028</ele>
        <time>2018-12-29T07:29:40Z</time>
      </trkpt>
      <trkpt lat="35.377180" lon="-119.018870">
        <ele>124.153</ele>
        <time>2018-12-29T07:30:00Z</time>
      </trkpt>
      <trkpt lat="35.376710" lon="-119.018870">
        <ele>124.123</ele>
        <time>2018-12-29T07:30:20Z</time>
      </trkpt>
      <trkpt lat="35.376520" lon="-119.018870">
        <ele>124.037</ele>
        <time>2018-12-29T07:30:40Z</time>
      </trkpt>
      <trkpt lat="35.376230" lon="-119.018870">
        <ele>124.030</ele>
        <time>2018-12-29T07:31:00Z</time>
      </trkpt>
      <trkpt lat="35.375770" lon="-119.018880">
        <ele>124.071</ele>
        <time>2018-12-29T07:31:20Z</time>
      </trkpt>
      <trkpt lat="35.375570" lon="-119.018880">
        <ele>124.044</ele>
        <time>2018-12-29T07:31:40Z</time>
      </trkpt>
      <trkpt lat="35.375280" lon="-119.018880">
        <ele>123.936</ele>
        <time>2018-12-29T07:32:00Z</time>
      </trkpt>
      <trkpt lat="35.374810" lon="-119.018880">
        <ele>123.817</ele>
        <time>2018-12-29T07:32:20Z</time>
      </trkpt>
      <trkpt lat="35.374330" lon="-119.018890">
        <ele>123.618</ele>
        <time>2018-12-29T07:32:40Z</time>
      </trkpt>
      <trkpt lat="35.373780" lon="-119.018880">
        <ele>123.508</ele>
        <time>2018-12-29T07:33:00Z</time>
      </trkpt>
      <trkpt lat="35.373390" lon="-119.018880">
        <ele>123.496</ele>
        <time>2018-12-29T07:33:20Z</time>
      </trkpt>
      <trkpt lat="35.373270" lon="-119.018880">
        <ele>123.464</ele>
        <time>2018-12-29T07:33:40Z</time>
      </trkpt>
      <trkpt lat="35.373280" lon="-119.018740">
        <ele>123.439</ele>
        <time>2018-12-29T07:34:00Z</time>
      </trkpt>
      <trkpt lat="35.373278" lon="-119.018744">
        <ele>123.429</ele>
        <time>2018-12-29T07:34:20Z</time>
      </trkpt>
      <trkpt lat="35.373278" lon="-119.018712">
        <ele>123.473</ele>
        <time>2018-12-27T13:54:39Z</time>
      </trkpt>
      <trkpt lat="35.373280" lon="-119.018610">
        <ele>123.485</ele>
        <time>2018-12-27T13:54:59Z</time>
      </trkpt>
      <trkpt lat="35.373280" lon="-119.018380">
        <ele>123.413</ele>
        <time>2018-12-27T13:55:19Z</time>
      </trkpt>
      <trkpt lat="35.373280" lon="-119.018050">
        <ele>123.508</ele>
        <time>2018-12-27T13:55:39Z</time>
      </trkpt>
      <trkpt lat="35.373280" lon="-119.017620">
        <ele>123.590</ele>
        <time>2018-12-27T13:55:59Z</time>
      </trkpt>
      <trkpt lat="35.373270" lon="-119.017100">
        <ele>123.558</ele>
        <time>2018-12-27T13:56:19Z</time>
      </trkpt>
      <trkpt lat="35.373250" lon="-119.016440">
        <ele>123.563</ele>
        <time>2018-12-27T13:56:39Z</time>
      </trkpt>
      <trkpt lat="35.373240" lon="-119.015340">
        <ele>123.483</ele>
        <time>2018-12-27T13:56:59Z</time>
      </trkpt>
      <trkpt lat="35.373250" lon="-119.014610">
        <ele>123.497</ele>
        <time>2018-12-27T13:57:19Z</time>
      </trkpt>
      <trkpt lat="35.373250" lon="-119.014140">
        <ele>123.421</ele>
        <time>2018-12-27T13:57:39Z</time>
      </trkpt>
      <trkpt lat="35.373240" lon="-119.012980">
        <ele>123.440</ele>
        <time>2018-12-27T13:57:59Z</time>
      </trkpt>
      <trkpt lat="35.373230" lon="-119.012690">
        <ele>123.435</ele>
        <time>2018-12-27T13:58:19Z</time>
      </trkpt>
      <trkpt lat="35.373230" lon="-119.012400">
        <ele>123.445</ele>
        <time>2018-12-27T13:58:39Z</time>
      </trkpt>
      <trkpt lat="35.373220" lon="-119.011960">
        <ele>123.447</ele>
        <time>2018-12-27T13:58:59Z</time>
      </trkpt>
      <trkpt lat="35.373220" lon="-119.011620">
        <ele>123.411</ele>
        <time>2018-12-27T13:59:19Z</time>
      </trkpt>
      <trkpt lat="35.373220" lon="-119.011270">
        <ele>123.508</ele>
        <time>2018-12-27T13:59:39Z</time>
      </trkpt>
      <trkpt lat="35.373210" lon="-119.010650">
        <ele>123.667</ele>
        <time>2018-12-27T13:59:59Z</time>
      </trkpt>
      <trkpt lat="35.373220" lon="-119.009670">
        <ele>123.935</ele>
        <time>2018-12-27T14:00:19Z</time>
      </trkpt>
      <trkpt lat="35.373220" lon="-119.008710">
        <ele>124.160</ele>
        <time>2018-12-27T14:00:39Z</time>
      </trkpt>
      <trkpt lat="35.373220" lon="-119.008320">
        <ele>124.110</ele>
        <time>2018-12-27T14:00:59Z</time>
      </trkpt>
      <trkpt lat="35.373240" lon="-119.007130">
        <ele>124.094</ele>
        <time>2018-12-27T14:01:19Z</time>
      </trkpt>
      <trkpt lat="35.373230" lon="-119.006000">
        <ele>124.168</ele>
        <time>2018-12-27T14:01:39Z</time>
      </trkpt>
      <trkpt lat="35.373230" lon="-119.005580">
        <ele>124.147</ele>
        <time>2018-12-27T14:01:59Z</time>
      </trkpt>
      <trkpt lat="35.373230" lon="-119.005320">
        <ele>124.172</ele>
        <time>2018-12-27T14:02:19Z</time>
      </trkpt>
      <trkpt lat="35.373250" lon="-119.004820">
        <ele>124.147</ele>
        <time>2018-12-27T14:02:39Z</time>
      </trkpt>
      <trkpt lat="35.373246" lon="-119.004822">
        <ele>124.129</ele>
        <time>2018-12-27T14:02:59Z</time>
      </trkpt>
      <trkpt lat="35.373170" lon="-119.004820">
        <ele>124.121</ele>
        <time>2018-12-27T14:03:19Z</time>
      </trkpt>
      <trkpt lat="35.373160" lon="-119.003130">
        <ele>124.308</ele>
        <time>2018-12-27T14:03:39Z</time>
      </trkpt>
      <trkpt lat="35.373156" lon="-119.003135">
        <ele>124.347</ele>
        <time>2018-12-27T14:03:59Z</time>
      </trkpt>
      <trkpt lat="35.373160" lon="-119.003000">
        <ele>124.315</ele>
        <time>2018-12-27T14:04:19Z</time>
      </trkpt>
      <trkpt lat="35.372680" lon="-119.003010">
        <ele>124.380</ele>
        <time>2018-12-27T14:04:39Z</time>
      </trkpt>
      <trkpt lat="35.372170" lon="-119.003010">
        <ele>124.340</ele>
        <time>2018-12-27T14:04:59Z</time>
      </trkpt>
      <trkpt lat="35.370810" lon="-119.003010">
        <ele>124.244</ele>
        <time>2018-12-27T14:05:19Z</time>
      </trkpt>
      <trkpt lat="35.370480" lon="-119.003020">
        <ele>124.178</ele>
        <time>2018-12-27T14:05:39Z</time>
      </trkpt>
      <trkpt lat="35.370260" lon="-119.003040">
        <ele>124.167</ele>
        <time>2018-12-27T14:05:59Z</time>
      </trkpt>
      <trkpt lat="35.370140" lon="-119.003040">
        <ele>124.172</ele>
        <time>2018-12-27T14:06:19Z</time>
      </trkpt>
      <trkpt lat="35.369560" lon="-119.003030">
        <ele>124.172</ele>
        <time>2018-12-27T14:06:39Z</time>
      </trkpt>
      <trkpt lat="35.369250" lon="-119.003020">
        <ele>124.113</ele>
        <time>2018-12-27T14:06:59Z</time>
      </trkpt>
      <trkpt lat="35.368500" lon="-119.003010">
        <ele>124.014</ele>
        <time>2018-12-27T14:07:19Z</time>
      </trkpt>
      <trkpt lat="35.368340" lon="-119.003010">
        <ele>124.008</ele>
        <time>2018-12-27T14:07:39Z</time>
      </trkpt>
      <trkpt lat="35.367780" lon="-119.003020">
        <ele>123.960</ele>
        <time>2018-12-27T14:07:59Z</time>
      </trkpt>
      <trkpt lat="35.367390" lon="-119.003030">
        <ele>123.978</ele>
        <time>2018-12-27T14:08:19Z</time>
      </trkpt>
      <trkpt lat="35.366430" lon="-119.003040">
        <ele>123.653</ele>
        <time>2018-12-27T14:08:39Z</time>
      </trkpt>
      <trkpt lat="35.365920" lon="-119.003050">
        <ele>123.453</ele>
        <time>2018-12-27T14:08:59Z</time>
      </trkpt>
      <trkpt lat="35.365630" lon="-119.003050">
        <ele>123.217</ele>
        <time>2018-12-27T14:09:19Z</time>
      </trkpt>
      <trkpt lat="35.365460" lon="-119.003050">
        <ele>123.141</ele>
        <time>2018-12-27T14:09:39Z</time>
      </trkpt>
      <trkpt lat="35.364540" lon="-119.003050">
        <ele>122.680</ele>
        <time>2018-12-27T14:09:59Z</time>
      </trkpt>
      <trkpt lat="35.364320" lon="-119.003060">
        <ele>122.625</ele>
        <time>2018-12-27T14:10:19Z</time>
      </trkpt>
      <trkpt lat="35.363480" lon="-119.003060">
        <ele>122.564</ele>
        <time>2018-12-27T14:10:39Z</time>
      </trkpt>
      <trkpt lat="35.362560" lon="-119.003070">
        <ele>122.406</ele>
        <time>2018-12-27T14:10:59Z</time>
      </trkpt>
      <trkpt lat="35.361590" lon="-119.003080">
        <ele>122.116</ele>
        <time>2018-12-27T14:11:19Z</time>
      </trkpt>
      <trkpt lat="35.361480" lon="-119.003070">
        <ele>122.108</ele>
        <time>2018-12-27T14:11:39Z</time>
      </trkpt>
      <trkpt lat="35.361340" lon="-119.003070">
        <ele>122.119</ele>
        <time>2018-12-27T14:11:59Z</time>
      </trkpt>
      <trkpt lat="35.361180" lon="-119.003080">
        <ele>122.057</ele>
        <time>2018-12-27T14:12:19Z</time>
      </trkpt>
      <trkpt lat="35.360750" lon="-119.003090">
        <ele>121.932</ele>
        <time>2018-12-27T14:12:39Z</time>
      </trkpt>
      <trkpt lat="35.360500" lon="-119.003080">
        <ele>121.822</ele>
        <time>2018-12-27T14:12:59Z</time>
      </trkpt>
      <trkpt lat="35.360280" lon="-119.003080">
        <ele>121.716</ele>
        <time>2018-12-27T14:13:19Z</time>
      </trkpt>
      <trkpt lat="35.360060" lon="-119.003080">
        <ele>121.630</ele>
        <time>2018-12-27T14:13:39Z</time>
      </trkpt>
      <trkpt lat="35.359320" lon="-119.003070">
        <ele>121.459</ele>
        <time>2018-12-27T14:13:59Z</time>
      </trkpt>
      <trkpt lat="35.359210" lon="-119.003070">
        <ele>121.434</ele>
        <time>2018-12-27T14:14:19Z</time>
      </trkpt>
      <trkpt lat="35.358830" lon="-119.003080">
        <ele>121.322</ele>
        <time>2018-12-27T14:14:39Z</time>
      </trkpt>
      <trkpt lat="35.357500" lon="-119.003080">
        <ele>121.262</ele>
        <time>2018-12-27T14:14:59Z</time>
      </trkpt>
      <trkpt lat="35.356920" lon="-119.003090">
        <ele>121.208</ele>
        <time>2018-12-27T14:15:19Z</time>
      </trkpt>
      <trkpt lat="35.355030" lon="-119.003110">
        <ele>121.108</ele>
        <time>2018-12-27T14:15:39Z</time>
      </trkpt>
      <trkpt lat="35.354670" lon="-119.003100">
        <ele>121.115</ele>
        <time>2018-12-27T14:15:59Z</time>
      </trkpt>
      <trkpt lat="35.354160" lon="-119.003100">
        <ele>121.173</ele>
        <time>2018-12-27T14:16:19Z</time>
      </trkpt>
      <trkpt lat="35.353920" lon="-119.003100">
        <ele>121.178</ele>
        <time>2018-12-27T14:16:39Z</time>
      </trkpt>
      <trkpt lat="35.353800" lon="-119.003090">
        <ele>121.118</ele>
        <time>2018-12-27T14:16:59Z</time>
      </trkpt>
      <trkpt lat="35.353230" lon="-119.003100">
        <ele>121.152</ele>
        <time>2018-12-27T14:17:19Z</time>
      </trkpt>
      <trkpt lat="35.352780" lon="-119.003100">
        <ele>121.176</ele>
        <time>2018-12-27T14:17:39Z</time>
      </trkpt>
      <trkpt lat="35.352670" lon="-119.003100">
        <ele>121.125</ele>
        <time>2018-12-27T14:17:59Z</time>
      </trkpt>
      <trkpt lat="35.352660" lon="-119.003100">
        <ele>121.110</ele>
        <time>2018-12-27T14:18:19Z</time>
      </trkpt>
      <trkpt lat="35.352650" lon="-119.003100">
        <ele>121.178</ele>
        <time>2018-12-27T14:18:39Z</time>
      </trkpt>
      <trkpt lat="35.352600" lon="-119.003100">
        <ele>121.133</ele>
        <time>2018-12-27T14:18:59Z</time>
      </trkpt>
      <trkpt lat="35.352590" lon="-119.003100">
        <ele>121.126</ele>
        <time>2018-12-27T14:19:19Z</time>
      </trkpt>
      <trkpt lat="35.352280" lon="-119.003100">
        <ele>121.108</ele>
        <time>2018-12-27T14:19:39Z</time>
      </trkpt>
      <trkpt lat="35.352250" lon="-119.003100">
        <ele>121.140</ele>
        <time>2018-12-27T14:19:59Z</time>
      </trkpt>
      <trkpt lat="35.352200" lon="-119.003100">
        <ele>121.178</ele>
        <time>2018-12-27T14:20:19Z</time>
      </trkpt>
      <trkpt lat="35.351720" lon="-119.003100">
        <ele>121.113</ele>
        <time>2018-12-27T14:20:39Z</time>
      </trkpt>
      <trkpt lat="35.351722" lon="-119.003098">
        <ele>121.143</ele>
        <time>2018-12-27T14:20:59Z</time>
      </trkpt>
      <trkpt lat="35.351590" lon="-119.003220">
        <ele>121.177</ele>
        <time>2018-12-27T14:21:19Z</time>
      </trkpt>
      <trkpt lat="35.351540" lon="-119.003260">
        <ele>121.111</ele>
        <time>2018-12-27T14:21:39Z</time>
      </trkpt>
      <trkpt lat="35.351480" lon="-119.003330">
        <ele>121.150</ele>
        <time>2018-12-27T14:21:59Z</time>
      </trkpt>
      <trkpt lat="35.351450" lon="-119.003400">
        <ele>121.195</ele>
        <time>2018-12-27T14:22:19Z</time>
      </trkpt>
      <trkpt lat="35.351420" lon="-119.003450">
        <ele>121.133</ele>
        <time>2018-12-27T14:22:39Z</time>
      </trkpt>
      <trkpt lat="35.351400" lon="-119.003520">
        <ele>121.123</ele>
        <time>2018-12-27T14:22:59Z</time>
      </trkpt>
      <trkpt lat="35.351400" lon="-119.003610">
        <ele>121.115</ele>
        <time>2018-12-27T14:23:19Z</time>
      </trkpt>
      <trkpt lat="35.351400" lon="-119.003680">
        <ele>121.108</ele>
        <time>2018-12-27T14:23:39Z</time>
      </trkpt>
      <trkpt lat="35.351410" lon="-119.003750">
        <ele>121.156</ele>
        <time>2018-12-27T14:23:59Z</time>
      </trkpt>
      <trkpt lat="35.351420" lon="-119.003820">
        <ele>121.174</ele>
        <time>2018-12-27T14:24:19Z</time>
      </trkpt>
      <trkpt lat="35.351450" lon="-119.003880">
        <ele>121.129</ele>
        <time>2018-12-27T14:24:39Z</time>
      </trkpt>
      <trkpt lat="35.351480" lon="-119.003930">
        <ele>121.129</ele>
        <time>2018-12-27T14:24:59Z</time>
      </trkpt>
      <trkpt lat="35.351530" lon="-119.003980">
        <ele>121.153</ele>
        <time>2018-12-27T14:25:19Z</time>
      </trkpt>
      <trkpt lat="35.351570" lon="-119.004020">
        <ele>121.177</ele>
        <time>2018-12-27T14:25:39Z</time>
      </trkpt>
      <trkpt lat="35.351610" lon="-119.004050">
        <ele>121.126</ele>
        <time>2018-12-27T14:25:59Z</time>
      </trkpt>
      <trkpt lat="35.351660" lon="-119.004070">
        <ele>121.141</ele>
        <time>2018-12-27T14:26:19Z</time>
      </trkpt>
      <trkpt lat="35.351740" lon="-119.004090">
        <ele>121.181</ele>
        <time>2018-12-27T14:26:39Z</time>
      </trkpt>
      <trkpt lat="35.351810" lon="-119.004090">
        <ele>121.161</ele>
        <time>2018-12-27T14:26:59Z</time>
      </trkpt>
      <trkpt lat="35.351870" lon="-119.004080">
        <ele>121.117</ele>
        <time>2018-12-27T14:27:19Z</time>
      </trkpt>
      <trkpt lat="35.351930" lon="-119.004060">
        <ele>121.108</ele>
        <time>2018-12-27T14:27:39Z</time>
      </trkpt>
      <trkpt lat="35.351980" lon="-119.004030">
        <ele>121.191</ele>
        <time>2018-12-27T14:27:59Z</time>
      </trkpt>
      <trkpt lat="35.352050" lon="-119.003970">
        <ele>121.189</ele>
        <time>2018-12-27T14:28:19Z</time>
      </trkpt>
      <trkpt lat="35.352100" lon="-119.003900">
        <ele>121.144</ele>
        <time>2018-12-27T14:28:39Z</time>
      </trkpt>
      <trkpt lat="35.352140" lon="-119.003810">
        <ele>121.164</ele>
        <time>2018-12-27T14:28:59Z</time>
      </trkpt>
      <trkpt lat="35.352170" lon="-119.003730">
        <ele>121.188</ele>
        <time>2018-12-27T14:29:19Z</time>
      </trkpt>
      <trkpt lat="35.352180" lon="-119.003630">
        <ele>121.172</ele>
        <time>2018-12-27T14:29:39Z</time>
      </trkpt>
      <trkpt lat="35.352190" lon="-119.003510">
        <ele>121.111</ele>
        <time>2018-12-27T14:29:59Z</time>
      </trkpt>
      <trkpt lat="35.352190" lon="-119.003330">
        <ele>121.176</ele>
        <time>2018-12-27T14:30:19Z</time>
      </trkpt>
      <trkpt lat="35.352200" lon="-119.003110">
        <ele>121.155</ele>
        <time>2018-12-27T14:30:39Z</time>
      </trkpt>
      <trkpt lat="35.352200" lon="-119.003100">
        <ele>121.107</ele>
        <time>2018-12-27T14:30:59Z</time>
      </trkpt>
      <trkpt lat="35.352210" lon="-119.002910">
        <ele>121.117</ele>
        <time>2018-12-27T14:31:19Z</time>
      </trkpt>
      <trkpt lat="35.352210" lon="-119.002860">
        <ele>121.108</ele>
        <time>2018-12-27T14:31:39Z</time>
      </trkpt>
      <trkpt lat="35.352220" lon="-119.002480">
        <ele>121.128</ele>
        <time>2018-12-27T14:31:59Z</time>
      </trkpt>
      <trkpt lat="35.352220" lon="-119.002310">
        <ele>121.176</ele>
        <time>2018-12-27T14:32:19Z</time>
      </trkpt>
      <trkpt lat="35.352230" lon="-119.002260">
        <ele>121.151</ele>
        <time>2018-12-27T14:32:39Z</time>
      </trkpt>
      <trkpt lat="35.352240" lon="-119.002220">
        <ele>121.151</ele>
        <time>2018-12-27T14:32:59Z</time>
      </trkpt>
      <trkpt lat="35.352240" lon="-119.002200">
        <ele>121.185</ele>
        <time>2018-12-27T14:33:19Z</time>
      </trkpt>
      <trkpt lat="35.352260" lon="-119.002180">
        <ele>121.149</ele>
        <time>2018-12-27T14:33:39Z</time>
      </trkpt>
      <trkpt lat="35.352260" lon="-119.001400">
        <ele>121.148</ele>
        <time>2018-12-27T14:33:59Z</time>
      </trkpt>
      <trkpt lat="35.352260" lon="-119.001070">
        <ele>121.153</ele>
        <time>2018-12-27T14:34:19Z</time>
      </trkpt>
      <trkpt lat="35.352260" lon="-118.998670">
        <ele>120.945</ele>
        <time>2018-12-27T14:34:39Z</time>
      </trkpt>
      <trkpt lat="35.352260" lon="-118.998050">
        <ele>120.947</ele>
        <time>2018-12-27T14:34:59Z</time>
      </trkpt>
      <trkpt lat="35.352260" lon="-118.997050">
        <ele>120.711</ele>
        <time>2018-12-27T14:35:19Z</time>
      </trkpt>
      <trkpt lat="35.352260" lon="-118.994500">
        <ele>120.308</ele>
        <time>2018-12-27T14:35:39Z</time>
      </trkpt>
      <trkpt lat="35.352260" lon="-118.994250">
        <ele>120.337</ele>
        <time>2018-12-27T14:35:59Z</time>
      </trkpt>
      <trkpt lat="35.352260" lon="-118.994150">
        <ele>120.325</ele>
        <time>2018-12-27T14:36:19Z</time>
      </trkpt>
      <trkpt lat="35.352260" lon="-118.994140">
        <ele>120.390</ele>
        <time>2018-12-27T14:36:39Z</time>
      </trkpt>
      <trkpt lat="35.352250" lon="-118.994000">
        <ele>120.350</ele>
        <time>2018-12-27T14:36:59Z</time>
      </trkpt>
      <trkpt lat="35.352260" lon="-118.989740">
        <ele>119.754</ele>
        <time>2018-12-27T14:37:19Z</time>
      </trkpt>
      <trkpt lat="35.352260" lon="-118.989440">
        <ele>119.758</ele>
        <time>2018-12-27T14:37:39Z</time>
      </trkpt>
      <trkpt lat="35.352260" lon="-118.989400">
        <ele>119.777</ele>
        <time>2018-12-27T14:37:59Z</time>
      </trkpt>
      <trkpt lat="35.352260" lon="-118.989270">
        <ele>119.732</ele>
        <time>2018-12-27T14:38:19Z</time>
      </trkpt>
      <trkpt lat="35.352260" lon="-118.989130">
        <ele>119.676</ele>
        <time>2018-12-27T14:38:39Z</time>
      </trkpt>
      <trkpt lat="35.352260" lon="-118.985550">
        <ele>119.390</ele>
        <time>2018-12-27T14:38:59Z</time>
      </trkpt>
      <trkpt lat="35.352260" lon="-118.985380">
        <ele>119.319</ele>
        <time>2018-12-27T14:39:19Z</time>
      </trkpt>
      <trkpt lat="35.352260" lon="-118.985260">
        <ele>119.208</ele>
        <time>2018-12-27T14:39:39Z</time>
      </trkpt>
      <trkpt lat="35.352260" lon="-118.985220">
        <ele>119.270</ele>
        <time>2018-12-27T14:39:59Z</time>
      </trkpt>
      <trkpt lat="35.352260" lon="-118.985180">
        <ele>119.268</ele>
        <time>2018-12-27T14:40:19Z</time>
      </trkpt>
      <trkpt lat="35.352260" lon="-118.984990">
        <ele>119.233</ele>
        <time>2018-12-27T14:40:39Z</time>
      </trkpt>
      <trkpt lat="35.352260" lon="-118.984720">
        <ele>119.243</ele>
        <time>2018-12-27T14:40:59Z</time>
      </trkpt>
      <trkpt lat="35.352280" lon="-118.980900">
        <ele>118.687</ele>
        <time>2018-12-27T14:41:19Z</time>
      </trkpt>
      <trkpt lat="35.352280" lon="-118.980380">
        <ele>118.521</ele>
        <time>2018-12-27T14:41:39Z</time>
      </trkpt>
      <trkpt lat="35.352280" lon="-118.976450">
        <ele>118.210</ele>
        <time>2018-12-27T14:41:59Z</time>
      </trkpt>
      <trkpt lat="35.352280" lon="-118.976290">
        <ele>118.215</ele>
        <time>2018-12-27T14:42:19Z</time>
      </trkpt>
      <trkpt lat="35.352290" lon="-118.975780">
        <ele>118.224</ele>
        <time>2018-12-27T14:42:39Z</time>
      </trkpt>
      <trkpt lat="35.352290" lon="-118.975470">
        <ele>118.204</ele>
        <time>2018-12-27T14:42:59Z</time>
      </trkpt>
      <trkpt lat="35.352320" lon="-118.974870">
        <ele>118.214</ele>
        <time>2018-12-27T14:43:19Z</time>
      </trkpt>
      <trkpt lat="35.352340" lon="-118.974310">
        <ele>118.108</ele>
        <time>2018-12-27T14:43:39Z</time>
      </trkpt>
      <trkpt lat="35.352350" lon="-118.974090">
        <ele>118.035</ele>
        <time>2018-12-27T14:43:59Z</time>
      </trkpt>
      <trkpt lat="35.352400" lon="-118.973480">
        <ele>118.063</ele>
        <time>2018-12-27T14:44:19Z</time>
      </trkpt>
      <trkpt lat="35.352410" lon="-118.973300">
        <ele>117.988</ele>
        <time>2018-12-27T14:44:39Z</time>
      </trkpt>
      <trkpt lat="35.352500" lon="-118.972340">
        <ele>117.998</ele>
        <time>2018-12-27T14:44:59Z</time>
      </trkpt>
      <trkpt lat="35.352580" lon="-118.971430">
        <ele>117.862</ele>
        <time>2018-12-27T14:45:19Z</time>
      </trkpt>
      <trkpt lat="35.352630" lon="-118.970880">
        <ele>117.866</ele>
        <time>2018-12-27T14:45:39Z</time>
      </trkpt>
      <trkpt lat="35.352720" lon="-118.969960">
        <ele>117.835</ele>
        <time>2018-12-27T14:45:59Z</time>
      </trkpt>
      <trkpt lat="35.352790" lon="-118.969050">
        <ele>117.730</ele>
        <time>2018-12-27T14:46:19Z</time>
      </trkpt>
      <trkpt lat="35.352830" lon="-118.968470">
        <ele>117.724</ele>
        <time>2018-12-27T14:46:39Z</time>
      </trkpt>
      <trkpt lat="35.352860" lon="-118.967860">
        <ele>117.704</ele>
        <time>2018-12-27T14:46:59Z</time>
      </trkpt>
      <trkpt lat="35.352860" lon="-118.967620">
        <ele>117.714</ele>
        <time>2018-12-27T14:47:19Z</time>
      </trkpt>
      <trkpt lat="35.352870" lon="-118.967580">
        <ele>117.708</ele>
        <time>2018-12-27T14:47:39Z</time>
      </trkpt>
      <trkpt lat="35.352870" lon="-118.967460">
        <ele>117.715</ele>
        <time>2018-12-27T14:47:59Z</time>
      </trkpt>
      <trkpt lat="35.352870" lon="-118.967450">
        <ele>117.773</ele>
        <time>2018-12-27T14:48:19Z</time>
      </trkpt>
      <trkpt lat="35.352870" lon="-118.967290">
        <ele>117.798</ele>
        <time>2018-12-27T14:48:39Z</time>
      </trkpt>
      <trkpt lat="35.352880" lon="-118.966510">
        <ele>117.738</ele>
        <time>2018-12-27T14:48:59Z</time>
      </trkpt>
      <trkpt lat="35.352890" lon="-118.966190">
        <ele>117.722</ele>
        <time>2018-12-27T14:49:19Z</time>
      </trkpt>
      <trkpt lat="35.352890" lon="-118.965840">
        <ele>117.736</ele>
        <time>2018-12-27T14:49:39Z</time>
      </trkpt>
      <trkpt lat="35.352880" lon="-118.965500">
        <ele>117.775</ele>
        <time>2018-12-27T14:49:59Z</time>
      </trkpt>
      <trkpt lat="35.352870" lon="-118.965210">
        <ele>117.790</ele>
        <time>2018-12-27T14:50:19Z</time>
      </trkpt>
      <trkpt lat="35.352860" lon="-118.964780">
        <ele>117.738</ele>
        <time>2018-12-27T14:50:39Z</time>
      </trkpt>
      <trkpt lat="35.352850" lon="-118.964500">
        <ele>117.770</ele>
        <time>2018-12-27T14:50:59Z</time>
      </trkpt>
      <trkpt lat="35.352830" lon="-118.964300">
        <ele>117.717</ele>
        <time>2018-12-27T14:51:19Z</time>
      </trkpt>
      <trkpt lat="35.352830" lon="-118.964190">
        <ele>117.708</ele>
        <time>2018-12-27T14:51:39Z</time>
      </trkpt>
      <trkpt lat="35.352800" lon="-118.963480">
        <ele>117.786</ele>
        <time>2018-12-27T14:51:59Z</time>
      </trkpt>
      <trkpt lat="35.352730" lon="-118.962320">
        <ele>117.754</ele>
        <time>2018-12-27T14:52:19Z</time>
      </trkpt>
      <trkpt lat="35.352700" lon="-118.961800">
        <ele>117.759</ele>
        <time>2018-12-27T14:52:39Z</time>
      </trkpt>
      <trkpt lat="35.352610" lon="-118.960390">
        <ele>117.729</ele>
        <time>2018-12-27T14:52:59Z</time>
      </trkpt>
      <trkpt lat="35.352530" lon="-118.958920">
        <ele>117.853</ele>
        <time>2018-12-27T14:53:19Z</time>
      </trkpt>
      <trkpt lat="35.352500" lon="-118.958440">
        <ele>117.937</ele>
        <time>2018-12-27T14:53:39Z</time>
      </trkpt>
      <trkpt lat="35.352360" lon="-118.956100">
        <ele>118.436</ele>
        <time>2018-12-27T14:53:59Z</time>
      </trkpt>
      <trkpt lat="35.352310" lon="-118.955410">
        <ele>118.651</ele>
        <time>2018-12-27T14:54:19Z</time>
      </trkpt>
      <trkpt lat="35.352250" lon="-118.954160">
        <ele>119.018</ele>
        <time>2018-12-27T14:54:39Z</time>
      </trkpt>
      <trkpt lat="35.352170" lon="-118.952610">
        <ele>119.498</ele>
        <time>2018-12-27T14:54:59Z</time>
      </trkpt>
      <trkpt lat="35.352120" lon="-118.951240">
        <ele>119.617</ele>
        <time>2018-12-27T14:55:19Z</time>
      </trkpt>
      <trkpt lat="35.352100" lon="-118.950390">
        <ele>120.008</ele>
        <time>2018-12-27T14:55:39Z</time>
      </trkpt>
      <trkpt lat="35.352090" lon="-118.949910">
        <ele>120.364</ele>
        <time>2018-12-27T14:55:59Z</time>
      </trkpt>
      <trkpt lat="35.352090" lon="-118.949900">
        <ele>120.342</ele>
        <time>2018-12-27T14:56:19Z</time>
      </trkpt>
      <trkpt lat="35.352090" lon="-118.949840">
        <ele>120.397</ele>
        <time>2018-12-27T14:56:39Z</time>
      </trkpt>
      <trkpt lat="35.352090" lon="-118.949760">
        <ele>120.487</ele>
        <time>2018-12-27T14:56:59Z</time>
      </trkpt>
      <trkpt lat="35.352090" lon="-118.949730">
        <ele>120.451</ele>
        <time>2018-12-27T14:57:19Z</time>
      </trkpt>
      <trkpt lat="35.352090" lon="-118.949280">
        <ele>120.665</ele>
        <time>2018-12-27T14:57:39Z</time>
      </trkpt>
      <trkpt lat="35.352090" lon="-118.949040">
        <ele>120.734</ele>
        <time>2018-12-27T14:57:59Z</time>
      </trkpt>
      <trkpt lat="35.352090" lon="-118.948700">
        <ele>120.889</ele>
        <time>2018-12-27T14:58:19Z</time>
      </trkpt>
      <trkpt lat="35.352090" lon="-118.948380">
        <ele>121.097</ele>
        <time>2018-12-27T14:58:39Z</time>
      </trkpt>
      <trkpt lat="35.352090" lon="-118.947800">
        <ele>121.123</ele>
        <time>2018-12-27T14:58:59Z</time>
      </trkpt>
      <trkpt lat="35.352090" lon="-118.947440">
        <ele>121.225</ele>
        <time>2018-12-27T14:59:19Z</time>
      </trkpt>
      <trkpt lat="35.352090" lon="-118.946920">
        <ele>121.508</ele>
        <time>2018-12-27T14:59:39Z</time>
      </trkpt>
      <trkpt lat="35.352090" lon="-118.946500">
        <ele>121.672</ele>
        <time>2018-12-27T14:59:59Z</time>
      </trkpt>
      <trkpt lat="35.352090" lon="-118.946350">
        <ele>121.710</ele>
        <time>2018-12-27T15:00:19Z</time>
      </trkpt>
      <trkpt lat="35.352090" lon="-118.946180">
        <ele>121.795</ele>
        <time>2018-12-27T15:00:39Z</time>
      </trkpt>
      <trkpt lat="35.352080" lon="-118.946070">
        <ele>121.855</ele>
        <time>2018-12-27T15:00:59Z</time>
      </trkpt>
      <trkpt lat="35.352090" lon="-118.945190">
        <ele>122.199</ele>
        <time>2018-12-27T15:01:19Z</time>
      </trkpt>
      <trkpt lat="35.352130" lon="-118.941390">
        <ele>123.553</ele>
        <time>2018-12-27T15:01:39Z</time>
      </trkpt>
      <trkpt lat="35.352120" lon="-118.940860">
        <ele>123.752</ele>
        <time>2018-12-27T15:01:59Z</time>
      </trkpt>
      <trkpt lat="35.352130" lon="-118.940810">
        <ele>123.747</ele>
        <time>2018-12-27T15:02:19Z</time>
      </trkpt>
      <trkpt lat="35.352150" lon="-118.937820">
        <ele>125.394</ele>
        <time>2018-12-27T15:02:39Z</time>
      </trkpt>
      <trkpt lat="35.352140" lon="-118.936040">
        <ele>126.057</ele>
        <time>2018-12-27T15:02:59Z</time>
      </trkpt>
      <trkpt lat="35.352170" lon="-118.932420">
        <ele>127.022</ele>
        <time>2018-12-27T15:03:19Z</time>
      </trkpt>
      <trkpt lat="35.352170" lon="-118.932030">
        <ele>127.208</ele>
        <time>2018-12-27T15:03:39Z</time>
      </trkpt>
      <trkpt lat="35.352170" lon="-118.932000">
        <ele>127.242</ele>
        <time>2018-12-27T15:03:59Z</time>
      </trkpt>
      <trkpt lat="35.352170" lon="-118.931950">
        <ele>127.290</ele>
        <time>2018-12-27T15:04:19Z</time>
      </trkpt>
      <trkpt lat="35.352170" lon="-118.931940">
        <ele>127.295</ele>
        <time>2018-12-27T15:04:39Z</time>
      </trkpt>
      <trkpt lat="35.352170" lon="-118.931670">
        <ele>127.245</ele>
        <time>2018-12-27T15:04:59Z</time>
      </trkpt>
      <trkpt lat="35.352160" lon="-118.929700">
        <ele>127.949</ele>
        <time>2018-12-27T15:05:19Z</time>
      </trkpt>
      <trkpt lat="35.352180" lon="-118.928080">
        <ele>128.653</ele>
        <time>2018-12-27T15:05:39Z</time>
      </trkpt>
      <trkpt lat="35.352180" lon="-118.927620">
        <ele>128.892</ele>
        <time>2018-12-27T15:05:59Z</time>
      </trkpt>
      <trkpt lat="35.352190" lon="-118.926450">
        <ele>129.297</ele>
        <time>2018-12-27T15:06:19Z</time>
      </trkpt>
      <trkpt lat="35.352200" lon="-118.923200">
        <ele>130.498</ele>
        <time>2018-12-27T15:06:39Z</time>
      </trkpt>
      <trkpt lat="35.352210" lon="-118.920440">
        <ele>131.815</ele>
        <time>2018-12-27T15:06:59Z</time>
      </trkpt>
      <trkpt lat="35.352210" lon="-118.919850">
        <ele>132.126</ele>
        <time>2018-12-27T15:07:19Z</time>
      </trkpt>
      <trkpt lat="35.352210" lon="-118.919250">
        <ele>132.408</ele>
        <time>2018-12-27T15:07:39Z</time>
      </trkpt>
      <trkpt lat="35.352220" lon="-118.917140">
        <ele>133.772</ele>
        <time>2018-12-27T15:07:59Z</time>
      </trkpt>
      <trkpt lat="35.352200" lon="-118.916120">
        <ele>134.380</ele>
        <time>2018-12-27T15:08:19Z</time>
      </trkpt>
      <trkpt lat="35.352140" lon="-118.914560">
        <ele>135.315</ele>
        <time>2018-12-27T15:08:39Z</time>
      </trkpt>
      <trkpt lat="35.352130" lon="-118.914430">
        <ele>135.445</ele>
        <time>2018-12-27T15:08:59Z</time>
      </trkpt>
      <trkpt lat="35.352130" lon="-118.914320">
        <ele>135.569</ele>
        <time>2018-12-27T15:09:19Z</time>
      </trkpt>
      <trkpt lat="35.352120" lon="-118.914220">
        <ele>135.683</ele>
        <time>2018-12-27T15:09:39Z</time>
      </trkpt>
      <trkpt lat="35.352120" lon="-118.914120">
        <ele>135.762</ele>
        <time>2018-12-27T15:09:59Z</time>
      </trkpt>
      <trkpt lat="35.352120" lon="-118.914090">
        <ele>135.737</ele>
        <time>2018-12-27T15:10:19Z</time>
      </trkpt>
      <trkpt lat="35.352120" lon="-118.914010">
        <ele>135.831</ele>
        <time>2018-12-27T15:10:39Z</time>
      </trkpt>
      <trkpt lat="35.352090" lon="-118.913490">
        <ele>136.161</ele>
        <time>2018-12-27T15:10:59Z</time>
      </trkpt>
      <trkpt lat="35.352040" lon="-118.912820">
        <ele>136.707</ele>
        <time>2018-12-27T15:11:19Z</time>
      </trkpt>
      <trkpt lat="35.352030" lon="-118.912460">
        <ele>137.108</ele>
        <time>2018-12-27T15:11:39Z</time>
      </trkpt>
      <trkpt lat="35.351900" lon="-118.910670">
        <ele>138.956</ele>
        <time>2018-12-27T15:11:59Z</time>
      </trkpt>
      <trkpt lat="35.351790" lon="-118.909530">
        <ele>139.814</ele>
        <time>2018-12-27T15:12:19Z</time>
      </trkpt>
      <trkpt lat="35.351760" lon="-118.909000">
        <ele>140.119</ele>
        <time>2018-12-27T15:12:39Z</time>
      </trkpt>
      <trkpt lat="35.351680" lon="-118.907820">
        <ele>141.289</ele>
        <time>2018-12-27T15:12:59Z</time>
      </trkpt>
      <trkpt lat="35.351580" lon="-118.906060">
        <ele>143.073</ele>
        <time>2018-12-27T15:13:19Z</time>
      </trkpt>
      <trkpt lat="35.351490" lon="-118.904770">
        <ele>144.387</ele>
        <time>2018-12-27T15:13:39Z</time>
      </trkpt>
      <trkpt lat="35.351400" lon="-118.903520">
        <ele>144.926</ele>
        <time>2018-12-27T15:13:59Z</time>
      </trkpt>
      <trkpt lat="35.351280" lon="-118.901860">
        <ele>146.581</ele>
        <time>2018-12-27T15:14:19Z</time>
      </trkpt>
      <trkpt lat="35.351210" lon="-118.900970">
        <ele>147.343</ele>
        <time>2018-12-27T15:14:39Z</time>
      </trkpt>
      <trkpt lat="35.351170" lon="-118.900400">
        <ele>147.764</ele>
        <time>2018-12-27T15:14:59Z</time>
      </trkpt>
      <trkpt lat="35.351130" lon="-118.900010">
        <ele>147.910</ele>
        <time>2018-12-27T15:15:19Z</time>
      </trkpt>
      <trkpt lat="35.351080" lon="-118.899550">
        <ele>148.408</ele>
        <time>2018-12-27T15:15:39Z</time>
      </trkpt>
      <trkpt lat="35.351010" lon="-118.899030">
        <ele>148.867</ele>
        <time>2018-12-27T15:15:59Z</time>
      </trkpt>
      <trkpt lat="35.350990" lon="-118.898920">
        <ele>148.955</ele>
        <time>2018-12-27T15:16:19Z</time>
      </trkpt>
      <trkpt lat="35.350910" lon="-118.898440">
        <ele>149.220</ele>
        <time>2018-12-27T15:16:39Z</time>
      </trkpt>
      <trkpt lat="35.350820" lon="-118.897980">
        <ele>149.680</ele>
        <time>2018-12-27T15:16:59Z</time>
      </trkpt>
      <trkpt lat="35.350740" lon="-118.897640">
        <ele>150.084</ele>
        <time>2018-12-27T15:17:19Z</time>
      </trkpt>
      <trkpt lat="35.350700" lon="-118.897470">
        <ele>150.158</ele>
        <time>2018-12-27T15:17:39Z</time>
      </trkpt>
      <trkpt lat="35.350580" lon="-118.896940">
        <ele>150.487</ele>
        <time>2018-12-27T15:17:59Z</time>
      </trkpt>
      <trkpt lat="35.350440" lon="-118.896470">
        <ele>150.472</ele>
        <time>2018-12-27T15:18:19Z</time>
      </trkpt>
      <trkpt lat="35.350420" lon="-118.896400">
        <ele>150.421</ele>
        <time>2018-12-27T15:18:39Z</time>
      </trkpt>
      <trkpt lat="35.349580" lon="-118.893550">
        <ele>151.541</ele>
        <time>2018-12-27T15:18:59Z</time>
      </trkpt>
      <trkpt lat="35.349120" lon="-118.891950">
        <ele>152.305</ele>
        <time>2018-12-27T15:19:19Z</time>
      </trkpt>
      <trkpt lat="35.348820" lon="-118.890930">
        <ele>153.108</ele>
        <time>2018-12-27T15:19:39Z</time>
      </trkpt>
      <trkpt lat="35.348610" lon="-118.890200">
        <ele>153.515</ele>
        <time>2018-12-27T15:19:59Z</time>
      </trkpt>
      <trkpt lat="35.348290" lon="-118.889080">
        <ele>154.583</ele>
        <time>2018-12-27T15:20:19Z</time>
      </trkpt>
      <trkpt lat="35.346760" lon="-118.883890">
        <ele>159.418</ele>
        <time>2018-12-27T15:20:39Z</time>
      </trkpt>
      <trkpt lat="35.346490" lon="-118.882930">
        <ele>160.358</ele>
        <time>2018-12-27T15:20:59Z</time>
      </trkpt>
      <trkpt lat="35.346400" lon="-118.882620">
        <ele>160.712</ele>
        <time>2018-12-27T15:21:19Z</time>
      </trkpt>
      <trkpt lat="35.346260" lon="-118.882140">
        <ele>161.186</ele>
        <time>2018-12-27T15:21:39Z</time>
      </trkpt>
      <trkpt lat="35.346170" lon="-118.881840">
        <ele>161.285</ele>
        <time>2018-12-27T15:21:59Z</time>
      </trkpt>
      <trkpt lat="35.346130" lon="-118.881690">
        <ele>161.330</ele>
        <time>2018-12-27T15:22:19Z</time>
      </trkpt>
      <trkpt lat="35.346040" lon="-118.881400">
        <ele>161.579</ele>
        <time>2018-12-27T15:22:39Z</time>
      </trkpt>
      <trkpt lat="35.346000" lon="-118.881240">
        <ele>161.805</ele>
        <time>2018-12-27T15:22:59Z</time>
      </trkpt>
      <trkpt lat="35.345950" lon="-118.881070">
        <ele>162.025</ele>
        <time>2018-12-27T15:23:19Z</time>
      </trkpt>
      <trkpt lat="35.345870" lon="-118.880790">
        <ele>162.308</ele>
        <time>2018-12-27T15:23:39Z</time>
      </trkpt>
      <trkpt lat="35.345790" lon="-118.880470">
        <ele>162.660</ele>
        <time>2018-12-27T15:23:59Z</time>
      </trkpt>
      <trkpt lat="35.345720" lon="-118.880170">
        <ele>162.868</ele>
        <time>2018-12-27T15:24:19Z</time>
      </trkpt>
      <trkpt lat="35.345650" lon="-118.879860">
        <ele>163.533</ele>
        <time>2018-12-27T15:24:39Z</time>
      </trkpt>
      <trkpt lat="35.345570" lon="-118.879460">
        <ele>164.083</ele>
        <time>2018-12-27T15:24:59Z</time>
      </trkpt>
      <trkpt lat="35.345500" lon="-118.879050">
        <ele>164.297</ele>
        <time>2018-12-27T15:25:19Z</time>
      </trkpt>
      <trkpt lat="35.345440" lon="-118.878680">
        <ele>164.611</ele>
        <time>2018-12-27T15:25:39Z</time>
      </trkpt>
      <trkpt lat="35.345430" lon="-118.878670">
        <ele>164.640</ele>
        <time>2018-12-27T15:25:59Z</time>
      </trkpt>
      <trkpt lat="35.345360" lon="-118.878250">
        <ele>165.365</ele>
        <time>2018-12-27T15:26:19Z</time>
      </trkpt>
      <trkpt lat="35.345260" lon="-118.877550">
        <ele>165.968</ele>
        <time>2018-12-27T15:26:39Z</time>
      </trkpt>
      <trkpt lat="35.344880" lon="-118.875120">
        <ele>168.142</ele>
        <time>2018-12-27T15:26:59Z</time>
      </trkpt>
      <trkpt lat="35.344790" lon="-118.874530">
        <ele>168.626</ele>
        <time>2018-12-27T15:27:19Z</time>
      </trkpt>
      <trkpt lat="35.344640" lon="-118.873580">
        <ele>169.008</ele>
        <time>2018-12-27T15:27:39Z</time>
      </trkpt>
      <trkpt lat="35.344050" lon="-118.869800">
        <ele>171.599</ele>
        <time>2018-12-27T15:27:59Z</time>
      </trkpt>
      <trkpt lat="35.343910" lon="-118.868960">
        <ele>172.477</ele>
        <time>2018-12-27T15:28:19Z</time>
      </trkpt>
      <trkpt lat="35.343450" lon="-118.866080">
        <ele>175.652</ele>
        <time>2018-12-27T15:28:39Z</time>
      </trkpt>
      <trkpt lat="35.343190" lon="-118.864470">
        <ele>177.352</ele>
        <time>2018-12-27T15:28:59Z</time>
      </trkpt>
      <trkpt lat="35.343120" lon="-118.864030">
        <ele>177.856</ele>
        <time>2018-12-27T15:29:19Z</time>
      </trkpt>
      <trkpt lat="35.343060" lon="-118.863680">
        <ele>178.290</ele>
        <time>2018-12-27T15:29:39Z</time>
      </trkpt>
      <trkpt lat="35.342980" lon="-118.863220">
        <ele>178.719</ele>
        <time>2018-12-27T15:29:59Z</time>
      </trkpt>
      <trkpt lat="35.342930" lon="-118.862960">
        <ele>178.934</ele>
        <time>2018-12-27T15:30:19Z</time>
      </trkpt>
      <trkpt lat="35.342870" lon="-118.862640">
        <ele>179.288</ele>
        <time>2018-12-27T15:30:39Z</time>
      </trkpt>
      <trkpt lat="35.342750" lon="-118.862120">
        <ele>179.724</ele>
        <time>2018-12-27T15:30:59Z</time>
      </trkpt>
      <trkpt lat="35.342670" lon="-118.861800">
        <ele>180.026</ele>
        <time>2018-12-27T15:31:19Z</time>
      </trkpt>
      <trkpt lat="35.342590" lon="-118.861420">
        <ele>180.308</ele>
        <time>2018-12-27T15:31:39Z</time>
      </trkpt>
      <trkpt lat="35.342390" lon="-118.860630">
        <ele>181.011</ele>
        <time>2018-12-27T15:31:59Z</time>
      </trkpt>
      <trkpt lat="35.342130" lon="-118.859560">
        <ele>182.089</ele>
        <time>2018-12-27T15:32:19Z</time>
      </trkpt>
      <trkpt lat="35.341090" lon="-118.855260">
        <ele>185.914</ele>
        <time>2018-12-27T15:32:39Z</time>
      </trkpt>
      <trkpt lat="35.340650" lon="-118.853470">
        <ele>187.644</ele>
        <time>2018-12-27T15:32:59Z</time>
      </trkpt>
      <trkpt lat="35.339980" lon="-118.850640">
        <ele>190.648</ele>
        <time>2018-12-27T15:33:19Z</time>
      </trkpt>
      <trkpt lat="35.339580" lon="-118.848980">
        <ele>192.562</ele>
        <time>2018-12-27T15:33:39Z</time>
      </trkpt>
      <trkpt lat="35.339380" lon="-118.848150">
        <ele>193.451</ele>
        <time>2018-12-27T15:33:59Z</time>
      </trkpt>
      <trkpt lat="35.338980" lon="-118.846490">
        <ele>195.266</ele>
        <time>2018-12-27T15:34:19Z</time>
      </trkpt>
      <trkpt lat="35.338950" lon="-118.846350">
        <ele>195.389</ele>
        <time>2018-12-27T15:34:39Z</time>
      </trkpt>
      <trkpt lat="35.338860" lon="-118.846000">
        <ele>195.706</ele>
        <time>2018-12-27T15:34:59Z</time>
      </trkpt>
      <trkpt lat="35.338540" lon="-118.844640">
        <ele>197.026</ele>
        <time>2018-12-27T15:35:19Z</time>
      </trkpt>
      <trkpt lat="35.338480" lon="-118.844410">
        <ele>197.308</ele>
        <time>2018-12-27T15:35:39Z</time>
      </trkpt>
      <trkpt lat="35.338180" lon="-118.843200">
        <ele>198.471</ele>
        <time>2018-12-27T15:35:59Z</time>
      </trkpt>
      <trkpt lat="35.338180" lon="-118.843190">
        <ele>198.439</ele>
        <time>2018-12-27T15:36:19Z</time>
      </trkpt>
      <trkpt lat="35.337880" lon="-118.841900">
        <ele>199.574</ele>
        <time>2018-12-27T15:36:39Z</time>
      </trkpt>
      <trkpt lat="35.337190" lon="-118.839070">
        <ele>201.854</ele>
        <time>2018-12-27T15:36:59Z</time>
      </trkpt>
      <trkpt lat="35.336940" lon="-118.838000">
        <ele>202.958</ele>
        <time>2018-12-27T15:37:19Z</time>
      </trkpt>
      <trkpt lat="35.336220" lon="-118.835010">
        <ele>206.572</ele>
        <time>2018-12-27T15:37:39Z</time>
      </trkpt>
      <trkpt lat="35.335810" lon="-118.833330">
        <ele>208.661</ele>
        <time>2018-12-27T15:37:59Z</time>
      </trkpt>
      <trkpt lat="35.333880" lon="-118.825290">
        <ele>221.566</ele>
        <time>2018-12-27T15:38:19Z</time>
      </trkpt>
      <trkpt lat="35.333840" lon="-118.825130">
        <ele>221.754</ele>
        <time>2018-12-27T15:38:39Z</time>
      </trkpt>
      <trkpt lat="35.332210" lon="-118.818410">
        <ele>229.656</ele>
        <time>2018-12-27T15:38:59Z</time>
      </trkpt>
      <trkpt lat="35.331660" lon="-118.816130">
        <ele>232.411</ele>
        <time>2018-12-27T15:39:19Z</time>
      </trkpt>
      <trkpt lat="35.331550" lon="-118.815670">
        <ele>232.808</ele>
        <time>2018-12-27T15:39:39Z</time>
      </trkpt>
      <trkpt lat="35.330820" lon="-118.812630">
        <ele>236.968</ele>
        <time>2018-12-27T15:39:59Z</time>
      </trkpt>
      <trkpt lat="35.330720" lon="-118.812200">
        <ele>237.286</ele>
        <time>2018-12-27T15:40:19Z</time>
      </trkpt>
      <trkpt lat="35.330610" lon="-118.811780">
        <ele>237.661</ele>
        <time>2018-12-27T15:40:39Z</time>
      </trkpt>
      <trkpt lat="35.330520" lon="-118.811390">
        <ele>237.921</ele>
        <time>2018-12-27T15:40:59Z</time>
      </trkpt>
      <trkpt lat="35.330430" lon="-118.811040">
        <ele>238.235</ele>
        <time>2018-12-27T15:41:19Z</time>
      </trkpt>
      <trkpt lat="35.330390" lon="-118.810860">
        <ele>238.449</ele>
        <time>2018-12-27T15:41:39Z</time>
      </trkpt>
      <trkpt lat="35.329940" lon="-118.808980">
        <ele>241.338</ele>
        <time>2018-12-27T15:41:59Z</time>
      </trkpt>
      <trkpt lat="35.329700" lon="-118.808030">
        <ele>242.613</ele>
        <time>2018-12-27T15:42:19Z</time>
      </trkpt>
      <trkpt lat="35.329600" lon="-118.807560">
        <ele>243.138</ele>
        <time>2018-12-27T15:42:39Z</time>
      </trkpt>
      <trkpt lat="35.329590" lon="-118.807520">
        <ele>243.270</ele>
        <time>2018-12-27T15:42:59Z</time>
      </trkpt>
      <trkpt lat="35.329450" lon="-118.806970">
        <ele>243.917</ele>
        <time>2018-12-27T15:43:19Z</time>
      </trkpt>
      <trkpt lat="35.329370" lon="-118.806610">
        <ele>244.408</ele>
        <time>2018-12-27T15:43:39Z</time>
      </trkpt>
      <trkpt lat="35.329210" lon="-118.806010">
        <ele>245.256</ele>
        <time>2018-12-27T15:43:59Z</time>
      </trkpt>
      <trkpt lat="35.329140" lon="-118.805780">
        <ele>245.414</ele>
        <time>2018-12-27T15:44:19Z</time>
      </trkpt>
      <trkpt lat="35.329090" lon="-118.805590">
        <ele>245.659</ele>
        <time>2018-12-27T15:44:39Z</time>
      </trkpt>
      <trkpt lat="35.329000" lon="-118.805330">
        <ele>245.919</ele>
        <time>2018-12-27T15:44:59Z</time>
      </trkpt>
      <trkpt lat="35.328840" lon="-118.804840">
        <ele>246.453</ele>
        <time>2018-12-27T15:45:19Z</time>
      </trkpt>
      <trkpt lat="35.328780" lon="-118.804670">
        <ele>246.627</ele>
        <time>2018-12-27T15:45:39Z</time>
      </trkpt>
      <trkpt lat="35.328720" lon="-118.804490">
        <ele>246.836</ele>
        <time>2018-12-27T15:45:59Z</time>
      </trkpt>
      <trkpt lat="35.328580" lon="-118.804130">
        <ele>247.281</ele>
        <time>2018-12-27T15:46:19Z</time>
      </trkpt>
      <trkpt lat="35.328350" lon="-118.803580">
        <ele>247.894</ele>
        <time>2018-12-27T15:46:39Z</time>
      </trkpt>
      <trkpt lat="35.328140" lon="-118.803130">
        <ele>248.357</ele>
        <time>2018-12-27T15:46:59Z</time>
      </trkpt>
      <trkpt lat="35.328070" lon="-118.802980">
        <ele>248.422</ele>
        <time>2018-12-27T15:47:19Z</time>
      </trkpt>
      <trkpt lat="35.327920" lon="-118.802670">
        <ele>248.808</ele>
        <time>2018-12-27T15:47:39Z</time>
      </trkpt>
      <trkpt lat="35.327750" lon="-118.802370">
        <ele>249.142</ele>
        <time>2018-12-27T15:47:59Z</time>
      </trkpt>
      <trkpt lat="35.327630" lon="-118.802140">
        <ele>249.340</ele>
        <time>2018-12-27T15:48:19Z</time>
      </trkpt>
      <trkpt lat="35.327480" lon="-118.801880">
        <ele>249.685</ele>
        <time>2018-12-27T15:48:39Z</time>
      </trkpt>
      <trkpt lat="35.327150" lon="-118.801320">
        <ele>250.265</ele>
        <time>2018-12-27T15:48:59Z</time>
      </trkpt>
      <trkpt lat="35.326680" lon="-118.800610">
        <ele>250.989</ele>
        <time>2018-12-27T15:49:19Z</time>
      </trkpt>
      <trkpt lat="35.326520" lon="-118.800370">
        <ele>251.213</ele>
        <time>2018-12-27T15:49:39Z</time>
      </trkpt>
      <trkpt lat="35.326400" lon="-118.800190">
        <ele>251.422</ele>
        <time>2018-12-27T15:49:59Z</time>
      </trkpt>
      <trkpt lat="35.326120" lon="-118.799810">
        <ele>251.767</ele>
        <time>2018-12-27T15:50:19Z</time>
      </trkpt>
      <trkpt lat="35.325840" lon="-118.799460">
        <ele>251.929</ele>
        <time>2018-12-27T15:50:39Z</time>
      </trkpt>
      <trkpt lat="35.325480" lon="-118.799020">
        <ele>252.200</ele>
        <time>2018-12-27T15:50:59Z</time>
      </trkpt>
      <trkpt lat="35.325000" lon="-118.798460">
        <ele>252.320</ele>
        <time>2018-12-27T15:51:19Z</time>
      </trkpt>
      <trkpt lat="35.324510" lon="-118.797890">
        <ele>252.508</ele>
        <time>2018-12-27T15:51:39Z</time>
      </trkpt>
      <trkpt lat="35.323710" lon="-118.796970">
        <ele>253.275</ele>
        <time>2018-12-27T15:51:59Z</time>
      </trkpt>
      <trkpt lat="35.318970" lon="-118.791490">
        <ele>257.273</ele>
        <time>2018-12-27T15:52:19Z</time>
      </trkpt>
      <trkpt lat="35.318580" lon="-118.791030">
        <ele>259.968</ele>
        <time>2018-12-27T15:52:39Z</time>
      </trkpt>
      <trkpt lat="35.318230" lon="-118.790620">
        <ele>262.478</ele>
        <time>2018-12-27T15:52:59Z</time>
      </trkpt>
      <trkpt lat="35.317730" lon="-118.790040">
        <ele>268.982</ele>
        <time>2018-12-27T15:53:19Z</time>
      </trkpt>
      <trkpt lat="35.317220" lon="-118.789450">
        <ele>270.046</ele>
        <time>2018-12-27T15:53:39Z</time>
      </trkpt>
      <trkpt lat="35.316850" lon="-118.789020">
        <ele>264.735</ele>
        <time>2018-12-27T15:53:59Z</time>
      </trkpt>
      <trkpt lat="35.316560" lon="-118.788690">
        <ele>263.880</ele>
        <time>2018-12-27T15:54:19Z</time>
      </trkpt>
      <trkpt lat="35.316160" lon="-118.788230">
        <ele>249.252</ele>
        <time>2018-12-27T15:54:39Z</time>
      </trkpt>
      <trkpt lat="35.316020" lon="-118.788090">
        <ele>236.953</ele>
        <time>2018-12-27T15:54:59Z</time>
      </trkpt>
      <trkpt lat="35.315890" lon="-118.787940">
        <ele>232.308</ele>
        <time>2018-12-27T15:55:19Z</time>
      </trkpt>
      <trkpt lat="35.315350" lon="-118.787310">
        <ele>230.508</ele>
        <time>2018-12-27T15:55:39Z</time>
      </trkpt>
      <trkpt lat="35.315060" lon="-118.786980">
        <ele>229.658</ele>
        <time>2018-12-27T15:55:59Z</time>
      </trkpt>
      <trkpt lat="35.314870" lon="-118.786760">
        <ele>229.396</ele>
        <time>2018-12-27T15:56:19Z</time>
      </trkpt>
      <trkpt lat="35.314530" lon="-118.786370">
        <ele>228.791</ele>
        <time>2018-12-27T15:56:39Z</time>
      </trkpt>
      <trkpt lat="35.314270" lon="-118.786050">
        <ele>228.281</ele>
        <time>2018-12-27T15:56:59Z</time>
      </trkpt>
      <trkpt lat="35.313530" lon="-118.785210">
        <ele>228.335</ele>
        <time>2018-12-27T15:57:19Z</time>
      </trkpt>
      <trkpt lat="35.313320" lon="-118.784950">
        <ele>228.489</ele>
        <time>2018-12-27T15:57:39Z</time>
      </trkpt>
      <trkpt lat="35.312720" lon="-118.784260">
        <ele>228.518</ele>
        <time>2018-12-27T15:57:59Z</time>
      </trkpt>
      <trkpt lat="35.312340" lon="-118.783820">
        <ele>228.643</ele>
        <time>2018-12-27T15:58:19Z</time>
      </trkpt>
      <trkpt lat="35.311010" lon="-118.782290">
        <ele>228.774</ele>
        <time>2018-12-27T15:58:39Z</time>
      </trkpt>
      <trkpt lat="35.309760" lon="-118.780850">
        <ele>228.956</ele>
        <time>2018-12-27T15:58:59Z</time>
      </trkpt>
      <trkpt lat="35.308980" lon="-118.779940">
        <ele>229.021</ele>
        <time>2018-12-27T15:59:19Z</time>
      </trkpt>
      <trkpt lat="35.308670" lon="-118.779570">
        <ele>229.108</ele>
        <time>2018-12-27T15:59:39Z</time>
      </trkpt>
      <trkpt lat="35.308280" lon="-118.779120">
        <ele>229.370</ele>
        <time>2018-12-27T15:59:59Z</time>
      </trkpt>
      <trkpt lat="35.307930" lon="-118.778720">
        <ele>229.518</ele>
        <time>2018-12-27T16:00:19Z</time>
      </trkpt>
      <trkpt lat="35.307130" lon="-118.777800">
        <ele>230.523</ele>
        <time>2018-12-27T16:00:39Z</time>
      </trkpt>
      <trkpt lat="35.306820" lon="-118.777440">
        <ele>231.043</ele>
        <time>2018-12-27T16:00:59Z</time>
      </trkpt>
      <trkpt lat="35.306470" lon="-118.777040">
        <ele>232.017</ele>
        <time>2018-12-27T16:01:19Z</time>
      </trkpt>
      <trkpt lat="35.306140" lon="-118.776670">
        <ele>240.261</ele>
        <time>2018-12-27T16:01:39Z</time>
      </trkpt>
      <trkpt lat="35.305990" lon="-118.776500">
        <ele>247.460</ele>
        <time>2018-12-27T16:01:59Z</time>
      </trkpt>
      <trkpt lat="35.305650" lon="-118.776120">
        <ele>256.925</ele>
        <time>2018-12-27T16:02:19Z</time>
      </trkpt>
      <trkpt lat="35.304850" lon="-118.775190">
        <ele>256.453</ele>
        <time>2018-12-27T16:02:39Z</time>
      </trkpt>
      <trkpt lat="35.303800" lon="-118.773980">
        <ele>260.504</ele>
        <time>2018-12-27T16:02:59Z</time>
      </trkpt>
      <trkpt lat="35.302760" lon="-118.772770">
        <ele>252.314</ele>
        <time>2018-12-27T16:03:19Z</time>
      </trkpt>
      <trkpt lat="35.302270" lon="-118.772200">
        <ele>249.908</ele>
        <time>2018-12-27T16:03:39Z</time>
      </trkpt>
      <trkpt lat="35.301770" lon="-118.771630">
        <ele>248.638</ele>
        <time>2018-12-27T16:03:59Z</time>
      </trkpt>
      <trkpt lat="35.301330" lon="-118.771120">
        <ele>247.426</ele>
        <time>2018-12-27T16:04:19Z</time>
      </trkpt>
      <trkpt lat="35.300980" lon="-118.770720">
        <ele>246.541</ele>
        <time>2018-12-27T16:04:39Z</time>
      </trkpt>
      <trkpt lat="35.300830" lon="-118.770540">
        <ele>246.291</ele>
        <time>2018-12-27T16:04:59Z</time>
      </trkpt>
      <trkpt lat="35.300370" lon="-118.770010">
        <ele>245.095</ele>
        <time>2018-12-27T16:05:19Z</time>
      </trkpt>
      <trkpt lat="35.299810" lon="-118.769330">
        <ele>244.189</ele>
        <time>2018-12-27T16:05:39Z</time>
      </trkpt>
      <trkpt lat="35.299580" lon="-118.769040">
        <ele>243.918</ele>
        <time>2018-12-27T16:05:59Z</time>
      </trkpt>
      <trkpt lat="35.299290" lon="-118.768630">
        <ele>243.823</ele>
        <time>2018-12-27T16:06:19Z</time>
      </trkpt>
      <trkpt lat="35.299090" lon="-118.768340">
        <ele>243.721</ele>
        <time>2018-12-27T16:06:39Z</time>
      </trkpt>
      <trkpt lat="35.298790" lon="-118.767890">
        <ele>243.741</ele>
        <time>2018-12-27T16:06:59Z</time>
      </trkpt>
      <trkpt lat="35.298470" lon="-118.767350">
        <ele>243.805</ele>
        <time>2018-12-27T16:07:19Z</time>
      </trkpt>
      <trkpt lat="35.298080" lon="-118.766640">
        <ele>243.908</ele>
        <time>2018-12-27T16:07:39Z</time>
      </trkpt>
      <trkpt lat="35.297890" lon="-118.766270">
        <ele>244.035</ele>
        <time>2018-12-27T16:07:59Z</time>
      </trkpt>
      <trkpt lat="35.297570" lon="-118.765560">
        <ele>244.143</ele>
        <time>2018-12-27T16:08:19Z</time>
      </trkpt>
      <trkpt lat="35.297400" lon="-118.765150">
        <ele>244.218</ele>
        <time>2018-12-27T16:08:39Z</time>
      </trkpt>
      <trkpt lat="35.297110" lon="-118.764440">
        <ele>245.038</ele>
        <time>2018-12-27T16:08:59Z</time>
      </trkpt>
      <trkpt lat="35.296820" lon="-118.763720">
        <ele>246.942</ele>
        <time>2018-12-27T16:09:19Z</time>
      </trkpt>
      <trkpt lat="35.296600" lon="-118.763170">
        <ele>248.226</ele>
        <time>2018-12-27T16:09:39Z</time>
      </trkpt>
      <trkpt lat="35.296300" lon="-118.762420">
        <ele>250.285</ele>
        <time>2018-12-27T16:09:59Z</time>
      </trkpt>
      <trkpt lat="35.295090" lon="-118.759410">
        <ele>262.820</ele>
        <time>2018-12-27T16:10:19Z</time>
      </trkpt>
      <trkpt lat="35.294420" lon="-118.757720">
        <ele>263.498</ele>
        <time>2018-12-27T16:10:39Z</time>
      </trkpt>
      <trkpt lat="35.294290" lon="-118.757390">
        <ele>263.615</ele>
        <time>2018-12-27T16:10:59Z</time>
      </trkpt>
      <trkpt lat="35.294250" lon="-118.757300">
        <ele>263.826</ele>
        <time>2018-12-27T16:11:19Z</time>
      </trkpt>
      <trkpt lat="35.293970" lon="-118.756610">
        <ele>265.108</ele>
        <time>2018-12-27T16:11:39Z</time>
      </trkpt>
      <trkpt lat="35.293400" lon="-118.755170">
        <ele>267.592</ele>
        <time>2018-12-27T16:11:59Z</time>
      </trkpt>
      <trkpt lat="35.292850" lon="-118.753830">
        <ele>267.280</ele>
        <time>2018-12-27T16:12:19Z</time>
      </trkpt>
      <trkpt lat="35.292470" lon="-118.752880">
        <ele>267.835</ele>
        <time>2018-12-27T16:12:39Z</time>
      </trkpt>
      <trkpt lat="35.292400" lon="-118.752680">
        <ele>268.375</ele>
        <time>2018-12-27T16:12:59Z</time>
      </trkpt>
      <trkpt lat="35.292400" lon="-118.752670">
        <ele>268.489</ele>
        <time>2018-12-27T16:13:19Z</time>
      </trkpt>
      <trkpt lat="35.292330" lon="-118.752490">
        <ele>269.323</ele>
        <time>2018-12-27T16:13:39Z</time>
      </trkpt>
      <trkpt lat="35.291090" lon="-118.749410">
        <ele>269.732</ele>
        <time>2018-12-27T16:13:59Z</time>
      </trkpt>
      <trkpt lat="35.290670" lon="-118.748390">
        <ele>271.777</ele>
        <time>2018-12-27T16:14:19Z</time>
      </trkpt>
      <trkpt lat="35.290130" lon="-118.747020">
        <ele>277.958</ele>
        <time>2018-12-27T16:14:39Z</time>
      </trkpt>
      <trkpt lat="35.289540" lon="-118.745570">
        <ele>284.252</ele>
        <time>2018-12-27T16:14:59Z</time>
      </trkpt>
      <trkpt lat="35.288830" lon="-118.743790">
        <ele>299.417</ele>
        <time>2018-12-27T16:15:19Z</time>
      </trkpt>
      <trkpt lat="35.288580" lon="-118.743160">
        <ele>304.308</ele>
        <time>2018-12-27T16:15:39Z</time>
      </trkpt>
      <trkpt lat="35.288160" lon="-118.742110">
        <ele>304.478</ele>
        <time>2018-12-27T16:15:59Z</time>
      </trkpt>
      <trkpt lat="35.287710" lon="-118.740990">
        <ele>309.926</ele>
        <time>2018-12-27T16:16:19Z</time>
      </trkpt>
      <trkpt lat="35.287390" lon="-118.740190">
        <ele>315.991</ele>
        <time>2018-12-27T16:16:39Z</time>
      </trkpt>
      <trkpt lat="35.286940" lon="-118.739090">
        <ele>310.481</ele>
        <time>2018-12-27T16:16:59Z</time>
      </trkpt>
      <trkpt lat="35.286310" lon="-118.737540">
        <ele>310.025</ele>
        <time>2018-12-27T16:17:19Z</time>
      </trkpt>
      <trkpt lat="35.285850" lon="-118.736340">
        <ele>326.079</ele>
        <time>2018-12-27T16:17:39Z</time>
      </trkpt>
      <trkpt lat="35.285450" lon="-118.735360">
        <ele>323.648</ele>
        <time>2018-12-27T16:17:59Z</time>
      </trkpt>
      <trkpt lat="35.285140" lon="-118.734580">
        <ele>328.343</ele>
        <time>2018-12-27T16:18:19Z</time>
      </trkpt>
      <trkpt lat="35.284970" lon="-118.734180">
        <ele>329.258</ele>
        <time>2018-12-27T16:18:39Z</time>
      </trkpt>
      <trkpt lat="35.284750" lon="-118.733710">
        <ele>328.952</ele>
        <time>2018-12-27T16:18:59Z</time>
      </trkpt>
      <trkpt lat="35.284410" lon="-118.733070">
        <ele>330.117</ele>
        <time>2018-12-27T16:19:19Z</time>
      </trkpt>
      <trkpt lat="35.284210" lon="-118.732700">
        <ele>332.008</ele>
        <time>2018-12-27T16:19:39Z</time>
      </trkpt>
      <trkpt lat="35.283030" lon="-118.730660">
        <ele>348.588</ele>
        <time>2018-12-27T16:19:59Z</time>
      </trkpt>
      <trkpt lat="35.281570" lon="-118.728150">
        <ele>364.386</ele>
        <time>2018-12-27T16:20:19Z</time>
      </trkpt>
      <trkpt lat="35.281230" lon="-118.727550">
        <ele>370.491</ele>
        <time>2018-12-27T16:20:39Z</time>
      </trkpt>
      <trkpt lat="35.280450" lon="-118.726200">
        <ele>377.161</ele>
        <time>2018-12-27T16:20:59Z</time>
      </trkpt>
      <trkpt lat="35.280080" lon="-118.725520">
        <ele>381.375</ele>
        <time>2018-12-27T16:21:19Z</time>
      </trkpt>
      <trkpt lat="35.279910" lon="-118.725200">
        <ele>384.069</ele>
        <time>2018-12-27T16:21:39Z</time>
      </trkpt>
      <trkpt lat="35.279800" lon="-118.724970">
        <ele>384.798</ele>
        <time>2018-12-27T16:21:59Z</time>
      </trkpt>
      <trkpt lat="35.279560" lon="-118.724450">
        <ele>385.843</ele>
        <time>2018-12-27T16:22:19Z</time>
      </trkpt>
      <trkpt lat="35.279340" lon="-118.723950">
        <ele>388.119</ele>
        <time>2018-12-27T16:22:39Z</time>
      </trkpt>
      <trkpt lat="35.279060" lon="-118.723200">
        <ele>391.509</ele>
        <time>2018-12-27T16:22:59Z</time>
      </trkpt>
      <trkpt lat="35.278830" lon="-118.722530">
        <ele>394.319</ele>
        <time>2018-12-27T16:23:19Z</time>
      </trkpt>
      <trkpt lat="35.278610" lon="-118.721790">
        <ele>398.808</ele>
        <time>2018-12-27T16:23:39Z</time>
      </trkpt>
      <trkpt lat="35.278460" lon="-118.721190">
        <ele>401.594</ele>
        <time>2018-12-27T16:23:59Z</time>
      </trkpt>
      <trkpt lat="35.278330" lon="-118.720610">
        <ele>402.922</ele>
        <time>2018-12-27T16:24:19Z</time>
      </trkpt>
      <trkpt lat="35.278240" lon="-118.720200">
        <ele>403.067</ele>
        <time>2018-12-27T16:24:39Z</time>
      </trkpt>
      <trkpt lat="35.278180" lon="-118.719850">
        <ele>402.987</ele>
        <time>2018-12-27T16:24:59Z</time>
      </trkpt>
      <trkpt lat="35.278120" lon="-118.719420">
        <ele>403.121</ele>
        <time>2018-12-27T16:25:19Z</time>
      </trkpt>
      <trkpt lat="35.277900" lon="-118.717820">
        <ele>400.475</ele>
        <time>2018-12-27T16:25:39Z</time>
      </trkpt>
      <trkpt lat="35.277830" lon="-118.717290">
        <ele>401.364</ele>
        <time>2018-12-27T16:25:59Z</time>
      </trkpt>
      <trkpt lat="35.277790" lon="-118.716970">
        <ele>402.149</ele>
        <time>2018-12-27T16:26:19Z</time>
      </trkpt>
      <trkpt lat="35.277690" lon="-118.716380">
        <ele>403.254</ele>
        <time>2018-12-27T16:26:39Z</time>
      </trkpt>
      <trkpt lat="35.277660" lon="-118.716240">
        <ele>403.556</ele>
        <time>2018-12-27T16:26:59Z</time>
      </trkpt>
      <trkpt lat="35.277550" lon="-118.715710">
        <ele>404.111</ele>
        <time>2018-12-27T16:27:19Z</time>
      </trkpt>
      <trkpt lat="35.277490" lon="-118.715440">
        <ele>404.408</ele>
        <time>2018-12-27T16:27:39Z</time>
      </trkpt>
      <trkpt lat="35.277340" lon="-118.714860">
        <ele>415.668</ele>
        <time>2018-12-27T16:27:59Z</time>
      </trkpt>
      <trkpt lat="35.277250" lon="-118.714520">
        <ele>415.736</ele>
        <time>2018-12-27T16:28:19Z</time>
      </trkpt>
      <trkpt lat="35.277140" lon="-118.714150">
        <ele>416.661</ele>
        <time>2018-12-27T16:28:39Z</time>
      </trkpt>
      <trkpt lat="35.276990" lon="-118.713670">
        <ele>418.751</ele>
        <time>2018-12-27T16:28:59Z</time>
      </trkpt>
      <trkpt lat="35.276910" lon="-118.713440">
        <ele>420.355</ele>
        <time>2018-12-27T16:29:19Z</time>
      </trkpt>
      <trkpt lat="35.276780" lon="-118.713100">
        <ele>427.139</ele>
        <time>2018-12-27T16:29:39Z</time>
      </trkpt>
      <trkpt lat="35.276700" lon="-118.712890">
        <ele>426.518</ele>
        <time>2018-12-27T16:29:59Z</time>
      </trkpt>
      <trkpt lat="35.276590" lon="-118.712620">
        <ele>428.183</ele>
        <time>2018-12-27T16:30:19Z</time>
      </trkpt>
      <trkpt lat="35.276460" lon="-118.712310">
        <ele>429.651</ele>
        <time>2018-12-27T16:30:39Z</time>
      </trkpt>
      <trkpt lat="35.276340" lon="-118.712040">
        <ele>430.101</ele>
        <time>2018-12-27T16:30:59Z</time>
      </trkpt>
      <trkpt lat="35.276200" lon="-118.711730">
        <ele>431.011</ele>
        <time>2018-12-27T16:31:19Z</time>
      </trkpt>
      <trkpt lat="35.275990" lon="-118.711300">
        <ele>435.308</ele>
        <time>2018-12-27T16:31:39Z</time>
      </trkpt>
      <trkpt lat="35.275770" lon="-118.710880">
        <ele>442.848</ele>
        <time>2018-12-27T16:31:59Z</time>
      </trkpt>
      <trkpt lat="35.275610" lon="-118.710590">
        <ele>448.156</ele>
        <time>2018-12-27T16:32:19Z</time>
      </trkpt>
      <trkpt lat="35.275050" lon="-118.709630">
        <ele>452.661</ele>
        <time>2018-12-27T16:32:39Z</time>
      </trkpt>
      <trkpt lat="35.274490" lon="-118.708680">
        <ele>458.851</ele>
        <time>2018-12-27T16:32:59Z</time>
      </trkpt>
      <trkpt lat="35.274000" lon="-118.707840">
        <ele>458.115</ele>
        <time>2018-12-27T16:33:19Z</time>
      </trkpt>
      <trkpt lat="35.273610" lon="-118.707180">
        <ele>455.139</ele>
        <time>2018-12-27T16:33:39Z</time>
      </trkpt>
      <trkpt lat="35.273400" lon="-118.706820">
        <ele>457.248</ele>
        <time>2018-12-27T16:33:59Z</time>
      </trkpt>
      <trkpt lat="35.273120" lon="-118.706360">
        <ele>462.223</ele>
        <time>2018-12-27T16:34:19Z</time>
      </trkpt>
      <trkpt lat="35.272910" lon="-118.705980">
        <ele>464.718</ele>
        <time>2018-12-27T16:34:39Z</time>
      </trkpt>
      <trkpt lat="35.272590" lon="-118.705430">
        <ele>468.598</ele>
        <time>2018-12-27T16:34:59Z</time>
      </trkpt>
      <trkpt lat="35.272410" lon="-118.705150">
        <ele>473.117</ele>
        <time>2018-12-27T16:35:19Z</time>
      </trkpt>
      <trkpt lat="35.271970" lon="-118.704420">
        <ele>485.408</ele>
        <time>2018-12-27T16:35:39Z</time>
      </trkpt>
      <trkpt lat="35.271660" lon="-118.703900">
        <ele>486.574</ele>
        <time>2018-12-27T16:35:59Z</time>
      </trkpt>
      <trkpt lat="35.271350" lon="-118.703340">
        <ele>484.822</ele>
        <time>2018-12-27T16:36:19Z</time>
      </trkpt>
      <trkpt lat="35.271140" lon="-118.702980">
        <ele>484.417</ele>
        <time>2018-12-27T16:36:39Z</time>
      </trkpt>
      <trkpt lat="35.271110" lon="-118.702920">
        <ele>483.997</ele>
        <time>2018-12-27T16:36:59Z</time>
      </trkpt>
      <trkpt lat="35.269800" lon="-118.700720">
        <ele>499.721</ele>
        <time>2018-12-27T16:37:19Z</time>
      </trkpt>
      <trkpt lat="35.269580" lon="-118.700340">
        <ele>504.045</ele>
        <time>2018-12-27T16:37:39Z</time>
      </trkpt>
      <trkpt lat="35.269440" lon="-118.700100">
        <ele>504.344</ele>
        <time>2018-12-27T16:37:59Z</time>
      </trkpt>
      <trkpt lat="35.269360" lon="-118.699960">
        <ele>504.799</ele>
        <time>2018-12-27T16:38:19Z</time>
      </trkpt>
      <trkpt lat="35.269250" lon="-118.699750">
        <ele>505.562</ele>
        <time>2018-12-27T16:38:39Z</time>
      </trkpt>
      <trkpt lat="35.269070" lon="-118.699380">
        <ele>506.983</ele>
        <time>2018-12-27T16:38:59Z</time>
      </trkpt>
      <trkpt lat="35.268880" lon="-118.698930">
        <ele>513.211</ele>
        <time>2018-12-27T16:39:19Z</time>
      </trkpt>
      <trkpt lat="35.268790" lon="-118.698690">
        <ele>516.608</ele>
        <time>2018-12-27T16:39:39Z</time>
      </trkpt>
      <trkpt lat="35.268690" lon="-118.698400">
        <ele>518.589</ele>
        <time>2018-12-27T16:39:59Z</time>
      </trkpt>
      <trkpt lat="35.268620" lon="-118.698170">
        <ele>519.757</ele>
        <time>2018-12-27T16:40:19Z</time>
      </trkpt>
      <trkpt lat="35.268570" lon="-118.697980">
        <ele>520.652</ele>
        <time>2018-12-27T16:40:39Z</time>
      </trkpt>
      <trkpt lat="35.268490" lon="-118.697720">
        <ele>521.712</ele>
        <time>2018-12-27T16:40:59Z</time>
      </trkpt>
      <trkpt lat="35.268440" lon="-118.697460">
        <ele>522.956</ele>
        <time>2018-12-27T16:41:19Z</time>
      </trkpt>
      <trkpt lat="35.268400" lon="-118.697270">
        <ele>524.150</ele>
        <time>2018-12-27T16:41:39Z</time>
      </trkpt>
      <trkpt lat="35.268310" lon="-118.696720">
        <ele>525.979</ele>
        <time>2018-12-27T16:41:59Z</time>
      </trkpt>
      <trkpt lat="35.268250" lon="-118.696220">
        <ele>531.094</ele>
        <time>2018-12-27T16:42:19Z</time>
      </trkpt>
      <trkpt lat="35.268230" lon="-118.696010">
        <ele>533.358</ele>
        <time>2018-12-27T16:42:39Z</time>
      </trkpt>
      <trkpt lat="35.268230" lon="-118.695860">
        <ele>534.952</ele>
        <time>2018-12-27T16:42:59Z</time>
      </trkpt>
      <trkpt lat="35.268220" lon="-118.695700">
        <ele>536.517</ele>
        <time>2018-12-27T16:43:19Z</time>
      </trkpt>
      <trkpt lat="35.268220" lon="-118.695480">
        <ele>536.508</ele>
        <time>2018-12-27T16:43:39Z</time>
      </trkpt>
      <trkpt lat="35.268220" lon="-118.695170">
        <ele>536.948</ele>
        <time>2018-12-27T16:43:59Z</time>
      </trkpt>
      <trkpt lat="35.268240" lon="-118.694630">
        <ele>536.976</ele>
        <time>2018-12-27T16:44:19Z</time>
      </trkpt>
      <trkpt lat="35.268290" lon="-118.694120">
        <ele>536.911</ele>
        <time>2018-12-27T16:44:39Z</time>
      </trkpt>
      <trkpt lat="35.268330" lon="-118.693840">
        <ele>536.971</ele>
        <time>2018-12-27T16:44:59Z</time>
      </trkpt>
      <trkpt lat="35.268410" lon="-118.693340">
        <ele>536.235</ele>
        <time>2018-12-27T16:45:19Z</time>
      </trkpt>
      <trkpt lat="35.268490" lon="-118.692960">
        <ele>534.369</ele>
        <time>2018-12-27T16:45:39Z</time>
      </trkpt>
      <trkpt lat="35.268520" lon="-118.692820">
        <ele>535.078</ele>
        <time>2018-12-27T16:45:59Z</time>
      </trkpt>
      <trkpt lat="35.268610" lon="-118.692480">
        <ele>538.543</ele>
        <time>2018-12-27T16:46:19Z</time>
      </trkpt>
      <trkpt lat="35.268760" lon="-118.692010">
        <ele>541.986</ele>
        <time>2018-12-27T16:46:39Z</time>
      </trkpt>
      <trkpt lat="35.268980" lon="-118.691390">
        <ele>544.260</ele>
        <time>2018-12-27T16:46:59Z</time>
      </trkpt>
      <trkpt lat="35.269320" lon="-118.690380">
        <ele>546.826</ele>
        <time>2018-12-27T16:47:19Z</time>
      </trkpt>
      <trkpt lat="35.269440" lon="-118.690050">
        <ele>551.008</ele>
        <time>2018-12-27T16:47:39Z</time>
      </trkpt>
      <trkpt lat="35.269520" lon="-118.689820">
        <ele>553.861</ele>
        <time>2018-12-27T16:47:59Z</time>
      </trkpt>
      <trkpt lat="35.269570" lon="-118.689630">
        <ele>554.339</ele>
        <time>2018-12-27T16:48:19Z</time>
      </trkpt>
      <trkpt lat="35.269640" lon="-118.689350">
        <ele>554.524</ele>
        <time>2018-12-27T16:48:39Z</time>
      </trkpt>
      <trkpt lat="35.269760" lon="-118.688740">
        <ele>553.984</ele>
        <time>2018-12-27T16:48:59Z</time>
      </trkpt>
      <trkpt lat="35.269810" lon="-118.688470">
        <ele>553.568</ele>
        <time>2018-12-27T16:49:19Z</time>
      </trkpt>
      <trkpt lat="35.269920" lon="-118.687810">
        <ele>549.952</ele>
        <time>2018-12-27T16:49:39Z</time>
      </trkpt>
      <trkpt lat="35.269960" lon="-118.687480">
        <ele>549.661</ele>
        <time>2018-12-27T16:49:59Z</time>
      </trkpt>
      <trkpt lat="35.270000" lon="-118.687070">
        <ele>549.656</ele>
        <time>2018-12-27T16:50:19Z</time>
      </trkpt>
      <trkpt lat="35.270030" lon="-118.686660">
        <ele>549.423</ele>
        <time>2018-12-27T16:50:39Z</time>
      </trkpt>
      <trkpt lat="35.270050" lon="-118.686150">
        <ele>551.783</ele>
        <time>2018-12-27T16:50:59Z</time>
      </trkpt>
      <trkpt lat="35.270060" lon="-118.685770">
        <ele>555.011</ele>
        <time>2018-12-27T16:51:19Z</time>
      </trkpt>
      <trkpt lat="35.270050" lon="-118.685420">
        <ele>557.508</ele>
        <time>2018-12-27T16:51:39Z</time>
      </trkpt>
      <trkpt lat="35.270040" lon="-118.684940">
        <ele>558.995</ele>
        <time>2018-12-27T16:51:59Z</time>
      </trkpt>
      <trkpt lat="35.270010" lon="-118.684420">
        <ele>559.143</ele>
        <time>2018-12-27T16:52:19Z</time>
      </trkpt>
      <trkpt lat="35.269950" lon="-118.683360">
        <ele>557.968</ele>
        <time>2018-12-27T16:52:39Z</time>
      </trkpt>
      <trkpt lat="35.269910" lon="-118.682410">
        <ele>548.988</ele>
        <time>2018-12-27T16:52:59Z</time>
      </trkpt>
      <trkpt lat="35.269870" lon="-118.681580">
        <ele>551.512</ele>
        <time>2018-12-27T16:53:19Z</time>
      </trkpt>
      <trkpt lat="35.269850" lon="-118.681270">
        <ele>552.876</ele>
        <time>2018-12-27T16:53:39Z</time>
      </trkpt>
      <trkpt lat="35.269780" lon="-118.680170">
        <ele>559.885</ele>
        <time>2018-12-27T16:53:59Z</time>
      </trkpt>
      <trkpt lat="35.269710" lon="-118.679480">
        <ele>565.380</ele>
        <time>2018-12-27T16:54:19Z</time>
      </trkpt>
      <trkpt lat="35.269660" lon="-118.679110">
        <ele>569.313</ele>
        <time>2018-12-27T16:54:39Z</time>
      </trkpt>
      <trkpt lat="35.269560" lon="-118.678490">
        <ele>579.143</ele>
        <time>2018-12-27T16:54:59Z</time>
      </trkpt>
      <trkpt lat="35.269470" lon="-118.677990">
        <ele>582.707</ele>
        <time>2018-12-27T16:55:19Z</time>
      </trkpt>
      <trkpt lat="35.269290" lon="-118.677170">
        <ele>582.208</ele>
        <time>2018-12-27T16:55:39Z</time>
      </trkpt>
      <trkpt lat="35.269150" lon="-118.676680">
        <ele>583.564</ele>
        <time>2018-12-27T16:55:59Z</time>
      </trkpt>
      <trkpt lat="35.268900" lon="-118.675820">
        <ele>594.482</ele>
        <time>2018-12-27T16:56:19Z</time>
      </trkpt>
      <trkpt lat="35.268710" lon="-118.675180">
        <ele>597.537</ele>
        <time>2018-12-27T16:56:39Z</time>
      </trkpt>
      <trkpt lat="35.268480" lon="-118.674380">
        <ele>598.227</ele>
        <time>2018-12-27T16:56:59Z</time>
      </trkpt>
      <trkpt lat="35.268340" lon="-118.673930">
        <ele>598.261</ele>
        <time>2018-12-27T16:57:19Z</time>
      </trkpt>
      <trkpt lat="35.267990" lon="-118.672720">
        <ele>590.845</ele>
        <time>2018-12-27T16:57:39Z</time>
      </trkpt>
      <trkpt lat="35.267830" lon="-118.672190">
        <ele>587.274</ele>
        <time>2018-12-27T16:57:59Z</time>
      </trkpt>
      <trkpt lat="35.266590" lon="-118.668010">
        <ele>561.749</ele>
        <time>2018-12-27T16:58:19Z</time>
      </trkpt>
      <trkpt lat="35.266130" lon="-118.666430">
        <ele>552.538</ele>
        <time>2018-12-27T16:58:39Z</time>
      </trkpt>
      <trkpt lat="35.265780" lon="-118.665240">
        <ele>552.570</ele>
        <time>2018-12-27T16:58:59Z</time>
      </trkpt>
      <trkpt lat="35.265420" lon="-118.664030">
        <ele>552.017</ele>
        <time>2018-12-27T16:59:19Z</time>
      </trkpt>
      <trkpt lat="35.265110" lon="-118.662980">
        <ele>551.708</ele>
        <time>2018-12-27T16:59:39Z</time>
      </trkpt>
      <trkpt lat="35.264900" lon="-118.662270">
        <ele>551.856</ele>
        <time>2018-12-27T16:59:59Z</time>
      </trkpt>
      <trkpt lat="35.264750" lon="-118.661710">
        <ele>551.954</ele>
        <time>2018-12-27T17:00:19Z</time>
      </trkpt>
      <trkpt lat="35.264610" lon="-118.661160">
        <ele>552.069</ele>
        <time>2018-12-27T17:00:39Z</time>
      </trkpt>
      <trkpt lat="35.264580" lon="-118.661000">
        <ele>551.969</ele>
        <time>2018-12-27T17:00:59Z</time>
      </trkpt>
      <trkpt lat="35.264490" lon="-118.660640">
        <ele>552.013</ele>
        <time>2018-12-27T17:01:19Z</time>
      </trkpt>
      <trkpt lat="35.264440" lon="-118.660390">
        <ele>552.047</ele>
        <time>2018-12-27T17:01:39Z</time>
      </trkpt>
      <trkpt lat="35.264360" lon="-118.659930">
        <ele>551.756</ele>
        <time>2018-12-27T17:01:59Z</time>
      </trkpt>
      <trkpt lat="35.264290" lon="-118.659460">
        <ele>551.151</ele>
        <time>2018-12-27T17:02:19Z</time>
      </trkpt>
      <trkpt lat="35.264230" lon="-118.658970">
        <ele>550.637</ele>
        <time>2018-12-27T17:02:39Z</time>
      </trkpt>
      <trkpt lat="35.264170" lon="-118.658400">
        <ele>549.049</ele>
        <time>2018-12-27T17:02:59Z</time>
      </trkpt>
      <trkpt lat="35.264120" lon="-118.657710">
        <ele>547.813</ele>
        <time>2018-12-27T17:03:19Z</time>
      </trkpt>
      <trkpt lat="35.264050" lon="-118.655930">
        <ele>543.208</ele>
        <time>2018-12-27T17:03:39Z</time>
      </trkpt>
      <trkpt lat="35.264020" lon="-118.655140">
        <ele>543.546</ele>
        <time>2018-12-27T17:03:59Z</time>
      </trkpt>
      <trkpt lat="35.263750" lon="-118.647480">
        <ele>569.684</ele>
        <time>2018-12-27T17:04:19Z</time>
      </trkpt>
      <trkpt lat="35.263730" lon="-118.646990">
        <ele>570.339</ele>
        <time>2018-12-27T17:04:39Z</time>
      </trkpt>
      <trkpt lat="35.263710" lon="-118.646530">
        <ele>570.889</ele>
        <time>2018-12-27T17:04:59Z</time>
      </trkpt>
      <trkpt lat="35.263690" lon="-118.646220">
        <ele>570.813</ele>
        <time>2018-12-27T17:05:19Z</time>
      </trkpt>
      <trkpt lat="35.263660" lon="-118.645880">
        <ele>570.637</ele>
        <time>2018-12-27T17:05:39Z</time>
      </trkpt>
      <trkpt lat="35.263620" lon="-118.645570">
        <ele>570.586</ele>
        <time>2018-12-27T17:05:59Z</time>
      </trkpt>
      <trkpt lat="35.263570" lon="-118.645290">
        <ele>570.531</ele>
        <time>2018-12-27T17:06:19Z</time>
      </trkpt>
      <trkpt lat="35.263520" lon="-118.644980">
        <ele>570.597</ele>
        <time>2018-12-27T17:06:39Z</time>
      </trkpt>
      <trkpt lat="35.263460" lon="-118.644660">
        <ele>570.723</ele>
        <time>2018-12-27T17:06:59Z</time>
      </trkpt>
      <trkpt lat="35.263200" lon="-118.643580">
        <ele>574.225</ele>
        <time>2018-12-27T17:07:19Z</time>
      </trkpt>
      <trkpt lat="35.263010" lon="-118.642770">
        <ele>576.208</ele>
        <time>2018-12-27T17:07:39Z</time>
      </trkpt>
      <trkpt lat="35.262930" lon="-118.642450">
        <ele>577.552</ele>
        <time>2018-12-27T17:07:59Z</time>
      </trkpt>
      <trkpt lat="35.262870" lon="-118.642140">
        <ele>579.260</ele>
        <time>2018-12-27T17:08:19Z</time>
      </trkpt>
      <trkpt lat="35.262830" lon="-118.641890">
        <ele>580.395</ele>
        <time>2018-12-27T17:08:39Z</time>
      </trkpt>
      <trkpt lat="35.262790" lon="-118.641620">
        <ele>581.455</ele>
        <time>2018-12-27T17:08:59Z</time>
      </trkpt>
      <trkpt lat="35.262750" lon="-118.641290">
        <ele>582.949</ele>
        <time>2018-12-27T17:09:19Z</time>
      </trkpt>
      <trkpt lat="35.262730" lon="-118.640970">
        <ele>585.743</ele>
        <time>2018-12-27T17:09:39Z</time>
      </trkpt>
      <trkpt lat="35.262710" lon="-118.640640">
        <ele>586.182</ele>
        <time>2018-12-27T17:09:59Z</time>
      </trkpt>
      <trkpt lat="35.262710" lon="-118.640310">
        <ele>586.247</ele>
        <time>2018-12-27T17:10:19Z</time>
      </trkpt>
      <trkpt lat="35.262710" lon="-118.640070">
        <ele>586.726</ele>
        <time>2018-12-27T17:10:39Z</time>
      </trkpt>
      <trkpt lat="35.262720" lon="-118.639760">
        <ele>587.847</ele>
        <time>2018-12-27T17:10:59Z</time>
      </trkpt>
      <trkpt lat="35.262740" lon="-118.639450">
        <ele>588.511</ele>
        <time>2018-12-27T17:11:19Z</time>
      </trkpt>
      <trkpt lat="35.262770" lon="-118.639210">
        <ele>588.808</ele>
        <time>2018-12-27T17:11:39Z</time>
      </trkpt>
      <trkpt lat="35.262800" lon="-118.638980">
        <ele>590.135</ele>
        <time>2018-12-27T17:11:59Z</time>
      </trkpt>
      <trkpt lat="35.262840" lon="-118.638660">
        <ele>596.063</ele>
        <time>2018-12-27T17:12:19Z</time>
      </trkpt>
      <trkpt lat="35.262930" lon="-118.638180">
        <ele>599.288</ele>
        <time>2018-12-27T17:12:39Z</time>
      </trkpt>
      <trkpt lat="35.263080" lon="-118.637520">
        <ele>601.468</ele>
        <time>2018-12-27T17:12:59Z</time>
      </trkpt>
      <trkpt lat="35.263220" lon="-118.636870">
        <ele>607.952</ele>
        <time>2018-12-27T17:13:19Z</time>
      </trkpt>
      <trkpt lat="35.263330" lon="-118.636410">
        <ele>611.446</ele>
        <time>2018-12-27T17:13:39Z</time>
      </trkpt>
      <trkpt lat="35.263400" lon="-118.636070">
        <ele>613.545</ele>
        <time>2018-12-27T17:13:59Z</time>
      </trkpt>
      <trkpt lat="35.263460" lon="-118.635740">
        <ele>615.210</ele>
        <time>2018-12-27T17:14:19Z</time>
      </trkpt>
      <trkpt lat="35.263510" lon="-118.635400">
        <ele>617.248</ele>
        <time>2018-12-27T17:14:39Z</time>
      </trkpt>
      <trkpt lat="35.263550" lon="-118.635090">
        <ele>618.861</ele>
        <time>2018-12-27T17:14:59Z</time>
      </trkpt>
      <trkpt lat="35.263590" lon="-118.634750">
        <ele>620.717</ele>
        <time>2018-12-27T17:15:19Z</time>
      </trkpt>
      <trkpt lat="35.263620" lon="-118.634420">
        <ele>622.208</ele>
        <time>2018-12-27T17:15:39Z</time>
      </trkpt>
      <trkpt lat="35.263640" lon="-118.633930">
        <ele>625.547</ele>
        <time>2018-12-27T17:15:59Z</time>
      </trkpt>
      <trkpt lat="35.263650" lon="-118.633220">
        <ele>630.175</ele>
        <time>2018-12-27T17:16:19Z</time>
      </trkpt>
      <trkpt lat="35.263660" lon="-118.632620">
        <ele>633.090</ele>
        <time>2018-12-27T17:16:39Z</time>
      </trkpt>
      <trkpt lat="35.263680" lon="-118.631170">
        <ele>643.980</ele>
        <time>2018-12-27T17:16:59Z</time>
      </trkpt>
      <trkpt lat="35.263690" lon="-118.630750">
        <ele>644.754</ele>
        <time>2018-12-27T17:17:19Z</time>
      </trkpt>
      <trkpt lat="35.263730" lon="-118.628760">
        <ele>654.748</ele>
        <time>2018-12-27T17:17:39Z</time>
      </trkpt>
      <trkpt lat="35.263730" lon="-118.628270">
        <ele>657.697</ele>
        <time>2018-12-27T17:17:59Z</time>
      </trkpt>
      <trkpt lat="35.263710" lon="-118.627970">
        <ele>657.382</ele>
        <time>2018-12-27T17:18:19Z</time>
      </trkpt>
      <trkpt lat="35.263680" lon="-118.627690">
        <ele>656.718</ele>
        <time>2018-12-27T17:18:39Z</time>
      </trkpt>
      <trkpt lat="35.263630" lon="-118.627440">
        <ele>658.498</ele>
        <time>2018-12-27T17:18:59Z</time>
      </trkpt>
      <trkpt lat="35.263570" lon="-118.627150">
        <ele>660.817</ele>
        <time>2018-12-27T17:19:19Z</time>
      </trkpt>
      <trkpt lat="35.263380" lon="-118.626530">
        <ele>668.108</ele>
        <time>2018-12-27T17:19:39Z</time>
      </trkpt>
      <trkpt lat="35.263230" lon="-118.626060">
        <ele>668.154</ele>
        <time>2018-12-27T17:19:59Z</time>
      </trkpt>
      <trkpt lat="35.263070" lon="-118.625540">
        <ele>668.382</ele>
        <time>2018-12-27T17:20:19Z</time>
      </trkpt>
      <trkpt lat="35.262910" lon="-118.625000">
        <ele>668.317</ele>
        <time>2018-12-27T17:20:39Z</time>
      </trkpt>
      <trkpt lat="35.262820" lon="-118.624660">
        <ele>673.977</ele>
        <time>2018-12-27T17:20:59Z</time>
      </trkpt>
      <trkpt lat="35.262690" lon="-118.624150">
        <ele>677.551</ele>
        <time>2018-12-27T17:21:19Z</time>
      </trkpt>
      <trkpt lat="35.262580" lon="-118.623550">
        <ele>679.815</ele>
        <time>2018-12-27T17:21:39Z</time>
      </trkpt>
      <trkpt lat="35.262400" lon="-118.622500">
        <ele>687.744</ele>
        <time>2018-12-27T17:21:59Z</time>
      </trkpt>
      <trkpt lat="35.262310" lon="-118.622000">
        <ele>690.289</ele>
        <time>2018-12-27T17:22:19Z</time>
      </trkpt>
      <trkpt lat="35.262230" lon="-118.621550">
        <ele>690.529</ele>
        <time>2018-12-27T17:22:39Z</time>
      </trkpt>
      <trkpt lat="35.262160" lon="-118.621280">
        <ele>691.100</ele>
        <time>2018-12-27T17:22:59Z</time>
      </trkpt>
      <trkpt lat="35.262050" lon="-118.620980">
        <ele>693.620</ele>
        <time>2018-12-27T17:23:19Z</time>
      </trkpt>
      <trkpt lat="35.261930" lon="-118.620700">
        <ele>697.208</ele>
        <time>2018-12-27T17:23:39Z</time>
      </trkpt>
      <trkpt lat="35.261810" lon="-118.620460">
        <ele>701.665</ele>
        <time>2018-12-27T17:23:59Z</time>
      </trkpt>
      <trkpt lat="35.261700" lon="-118.620270">
        <ele>705.133</ele>
        <time>2018-12-27T17:24:19Z</time>
      </trkpt>
      <trkpt lat="35.261450" lon="-118.619900">
        <ele>706.038</ele>
        <time>2018-12-27T17:24:39Z</time>
      </trkpt>
      <trkpt lat="35.261230" lon="-118.619600">
        <ele>705.738</ele>
        <time>2018-12-27T17:24:59Z</time>
      </trkpt>
      <trkpt lat="35.260920" lon="-118.619160">
        <ele>704.762</ele>
        <time>2018-12-27T17:25:19Z</time>
      </trkpt>
      <trkpt lat="35.260660" lon="-118.618800">
        <ele>710.476</ele>
        <time>2018-12-27T17:25:39Z</time>
      </trkpt>
      <trkpt lat="35.260470" lon="-118.618510">
        <ele>713.075</ele>
        <time>2018-12-27T17:25:59Z</time>
      </trkpt>
      <trkpt lat="35.260300" lon="-118.618250">
        <ele>715.640</ele>
        <time>2018-12-27T17:26:19Z</time>
      </trkpt>
      <trkpt lat="35.260070" lon="-118.617870">
        <ele>718.872</ele>
        <time>2018-12-27T17:26:39Z</time>
      </trkpt>
      <trkpt lat="35.259860" lon="-118.617480">
        <ele>719.213</ele>
        <time>2018-12-27T17:26:59Z</time>
      </trkpt>
      <trkpt lat="35.259540" lon="-118.616870">
        <ele>724.414</ele>
        <time>2018-12-27T17:27:19Z</time>
      </trkpt>
      <trkpt lat="35.259180" lon="-118.616180">
        <ele>727.108</ele>
        <time>2018-12-27T17:27:39Z</time>
      </trkpt>
      <trkpt lat="35.258940" lon="-118.615760">
        <ele>727.290</ele>
        <time>2018-12-27T17:27:59Z</time>
      </trkpt>
      <trkpt lat="35.258700" lon="-118.615380">
        <ele>731.878</ele>
        <time>2018-12-27T17:28:19Z</time>
      </trkpt>
      <trkpt lat="35.258520" lon="-118.615110">
        <ele>737.413</ele>
        <time>2018-12-27T17:28:39Z</time>
      </trkpt>
      <trkpt lat="35.258250" lon="-118.614750">
        <ele>742.433</ele>
        <time>2018-12-27T17:28:59Z</time>
      </trkpt>
      <trkpt lat="35.257670" lon="-118.614040">
        <ele>737.187</ele>
        <time>2018-12-27T17:29:19Z</time>
      </trkpt>
      <trkpt lat="35.257290" lon="-118.613580">
        <ele>747.641</ele>
        <time>2018-12-27T17:29:39Z</time>
      </trkpt>
      <trkpt lat="35.256990" lon="-118.613210">
        <ele>753.460</ele>
        <time>2018-12-27T17:29:59Z</time>
      </trkpt>
      <trkpt lat="35.256820" lon="-118.612990">
        <ele>754.195</ele>
        <time>2018-12-27T17:30:19Z</time>
      </trkpt>
      <trkpt lat="35.256640" lon="-118.612690">
        <ele>754.616</ele>
        <time>2018-12-27T17:30:39Z</time>
      </trkpt>
      <trkpt lat="35.256500" lon="-118.612410">
        <ele>754.176</ele>
        <time>2018-12-27T17:30:59Z</time>
      </trkpt>
      <trkpt lat="35.256360" lon="-118.612090">
        <ele>753.713</ele>
        <time>2018-12-27T17:31:19Z</time>
      </trkpt>
      <trkpt lat="35.256260" lon="-118.611790">
        <ele>752.008</ele>
        <time>2018-12-27T17:31:39Z</time>
      </trkpt>
      <trkpt lat="35.256180" lon="-118.611490">
        <ele>752.034</ele>
        <time>2018-12-27T17:31:59Z</time>
      </trkpt>
      <trkpt lat="35.256100" lon="-118.611150">
        <ele>757.842</ele>
        <time>2018-12-27T17:32:19Z</time>
      </trkpt>
      <trkpt lat="35.256010" lon="-118.610710">
        <ele>763.117</ele>
        <time>2018-12-27T17:32:39Z</time>
      </trkpt>
      <trkpt lat="35.255910" lon="-118.610220">
        <ele>766.867</ele>
        <time>2018-12-27T17:32:59Z</time>
      </trkpt>
      <trkpt lat="35.255840" lon="-118.609900">
        <ele>768.761</ele>
        <time>2018-12-27T17:33:19Z</time>
      </trkpt>
      <trkpt lat="35.255750" lon="-118.609570">
        <ele>769.515</ele>
        <time>2018-12-27T17:33:39Z</time>
      </trkpt>
      <trkpt lat="35.255650" lon="-118.609260">
        <ele>768.234</ele>
        <time>2018-12-27T17:33:59Z</time>
      </trkpt>
      <trkpt lat="35.255540" lon="-118.609000">
        <ele>768.049</ele>
        <time>2018-12-27T17:34:19Z</time>
      </trkpt>
      <trkpt lat="35.255450" lon="-118.608820">
        <ele>767.816</ele>
        <time>2018-12-27T17:34:39Z</time>
      </trkpt>
      <trkpt lat="35.255300" lon="-118.608560">
        <ele>767.976</ele>
        <time>2018-12-27T17:34:59Z</time>
      </trkpt>
      <trkpt lat="35.255130" lon="-118.608310">
        <ele>766.013</ele>
        <time>2018-12-27T17:35:19Z</time>
      </trkpt>
      <trkpt lat="35.254960" lon="-118.608090">
        <ele>764.608</ele>
        <time>2018-12-27T17:35:39Z</time>
      </trkpt>
      <trkpt lat="35.254750" lon="-118.607840">
        <ele>765.084</ele>
        <time>2018-12-27T17:35:59Z</time>
      </trkpt>
      <trkpt lat="35.254570" lon="-118.607620">
        <ele>767.412</ele>
        <time>2018-12-27T17:36:19Z</time>
      </trkpt>
      <trkpt lat="35.254350" lon="-118.607360">
        <ele>767.277</ele>
        <time>2018-12-27T17:36:39Z</time>
      </trkpt>
      <trkpt lat="35.253990" lon="-118.606920">
        <ele>771.237</ele>
        <time>2018-12-27T17:36:59Z</time>
      </trkpt>
      <trkpt lat="35.253630" lon="-118.606490">
        <ele>775.331</ele>
        <time>2018-12-27T17:37:19Z</time>
      </trkpt>
      <trkpt lat="35.253230" lon="-118.606030">
        <ele>780.495</ele>
        <time>2018-12-27T17:37:39Z</time>
      </trkpt>
      <trkpt lat="35.252800" lon="-118.605540">
        <ele>780.784</ele>
        <time>2018-12-27T17:37:59Z</time>
      </trkpt>
      <trkpt lat="35.252390" lon="-118.605080">
        <ele>782.459</ele>
        <time>2018-12-27T17:38:19Z</time>
      </trkpt>
      <trkpt lat="35.252010" lon="-118.604640">
        <ele>786.691</ele>
        <time>2018-12-27T17:38:39Z</time>
      </trkpt>
      <trkpt lat="35.251720" lon="-118.604300">
        <ele>790.381</ele>
        <time>2018-12-27T17:38:59Z</time>
      </trkpt>
      <trkpt lat="35.251440" lon="-118.603950">
        <ele>796.619</ele>
        <time>2018-12-27T17:39:19Z</time>
      </trkpt>
      <trkpt lat="35.251190" lon="-118.603610">
        <ele>801.008</ele>
        <time>2018-12-27T17:39:39Z</time>
      </trkpt>
      <trkpt lat="35.250820" lon="-118.603070">
        <ele>806.262</ele>
        <time>2018-12-27T17:39:59Z</time>
      </trkpt>
      <trkpt lat="35.250600" lon="-118.602740">
        <ele>809.420</ele>
        <time>2018-12-27T17:40:19Z</time>
      </trkpt>
      <trkpt lat="35.250270" lon="-118.602280">
        <ele>817.875</ele>
        <time>2018-12-27T17:40:39Z</time>
      </trkpt>
      <trkpt lat="35.250100" lon="-118.602020">
        <ele>822.685</ele>
        <time>2018-12-27T17:40:59Z</time>
      </trkpt>
      <trkpt lat="35.249950" lon="-118.601750">
        <ele>825.199</ele>
        <time>2018-12-27T17:41:19Z</time>
      </trkpt>
      <trkpt lat="35.249850" lon="-118.601560">
        <ele>824.693</ele>
        <time>2018-12-27T17:41:39Z</time>
      </trkpt>
      <trkpt lat="35.249740" lon="-118.601280">
        <ele>823.812</ele>
        <time>2018-12-27T17:41:59Z</time>
      </trkpt>
      <trkpt lat="35.249640" lon="-118.601000">
        <ele>828.247</ele>
        <time>2018-12-27T17:42:19Z</time>
      </trkpt>
      <trkpt lat="35.249540" lon="-118.600630">
        <ele>827.851</ele>
        <time>2018-12-27T17:42:39Z</time>
      </trkpt>
      <trkpt lat="35.248790" lon="-118.597450">
        <ele>817.201</ele>
        <time>2018-12-27T17:42:59Z</time>
      </trkpt>
      <trkpt lat="35.248560" lon="-118.596520">
        <ele>819.811</ele>
        <time>2018-12-27T17:43:19Z</time>
      </trkpt>
      <trkpt lat="35.248490" lon="-118.596240">
        <ele>820.608</ele>
        <time>2018-12-27T17:43:39Z</time>
      </trkpt>
      <trkpt lat="35.248430" lon="-118.596010">
        <ele>821.898</ele>
        <time>2018-12-27T17:43:59Z</time>
      </trkpt>
      <trkpt lat="35.248370" lon="-118.595810">
        <ele>820.536</ele>
        <time>2018-12-27T17:44:19Z</time>
      </trkpt>
      <trkpt lat="35.248300" lon="-118.595630">
        <ele>819.041</ele>
        <time>2018-12-27T17:44:39Z</time>
      </trkpt>
      <trkpt lat="35.248200" lon="-118.595390">
        <ele>816.021</ele>
        <time>2018-12-27T17:44:59Z</time>
      </trkpt>
      <trkpt lat="35.248080" lon="-118.595150">
        <ele>818.425</ele>
        <time>2018-12-27T17:45:19Z</time>
      </trkpt>
      <trkpt lat="35.247960" lon="-118.594940">
        <ele>817.899</ele>
        <time>2018-12-27T17:45:39Z</time>
      </trkpt>
      <trkpt lat="35.247870" lon="-118.594800">
        <ele>818.178</ele>
        <time>2018-12-27T17:45:59Z</time>
      </trkpt>
      <trkpt lat="35.247750" lon="-118.594650">
        <ele>819.133</ele>
        <time>2018-12-27T17:46:19Z</time>
      </trkpt>
      <trkpt lat="35.247620" lon="-118.594480">
        <ele>818.588</ele>
        <time>2018-12-27T17:46:39Z</time>
      </trkpt>
      <trkpt lat="35.247500" lon="-118.594350">
        <ele>819.024</ele>
        <time>2018-12-27T17:46:59Z</time>
      </trkpt>
      <trkpt lat="35.247310" lon="-118.594160">
        <ele>818.026</ele>
        <time>2018-12-27T17:47:19Z</time>
      </trkpt>
      <trkpt lat="35.246980" lon="-118.593880">
        <ele>816.108</ele>
        <time>2018-12-27T17:47:39Z</time>
      </trkpt>
      <trkpt lat="35.246610" lon="-118.593580">
        <ele>809.941</ele>
        <time>2018-12-27T17:47:59Z</time>
      </trkpt>
      <trkpt lat="35.246360" lon="-118.593370">
        <ele>807.169</ele>
        <time>2018-12-27T17:48:19Z</time>
      </trkpt>
      <trkpt lat="35.246040" lon="-118.593110">
        <ele>805.274</ele>
        <time>2018-12-27T17:48:39Z</time>
      </trkpt>
      <trkpt lat="35.245830" lon="-118.592900">
        <ele>805.224</ele>
        <time>2018-12-27T17:48:59Z</time>
      </trkpt>
      <trkpt lat="35.245680" lon="-118.592750">
        <ele>806.578</ele>
        <time>2018-12-27T17:49:19Z</time>
      </trkpt>
      <trkpt lat="35.245510" lon="-118.592550">
        <ele>808.212</ele>
        <time>2018-12-27T17:49:39Z</time>
      </trkpt>
      <trkpt lat="35.245330" lon="-118.592330">
        <ele>807.641</ele>
        <time>2018-12-27T17:49:59Z</time>
      </trkpt>
      <trkpt lat="35.245170" lon="-118.592100">
        <ele>804.466</ele>
        <time>2018-12-27T17:50:19Z</time>
      </trkpt>
      <trkpt lat="35.244910" lon="-118.591680">
        <ele>804.663</ele>
        <time>2018-12-27T17:50:39Z</time>
      </trkpt>
      <trkpt lat="35.244680" lon="-118.591300">
        <ele>803.544</ele>
        <time>2018-12-27T17:50:59Z</time>
      </trkpt>
      <trkpt lat="35.244410" lon="-118.590860">
        <ele>801.618</ele>
        <time>2018-12-27T17:51:19Z</time>
      </trkpt>
      <trkpt lat="35.244320" lon="-118.590720">
        <ele>799.908</ele>
        <time>2018-12-27T17:51:39Z</time>
      </trkpt>
      <trkpt lat="35.244200" lon="-118.590550">
        <ele>796.219</ele>
        <time>2018-12-27T17:51:59Z</time>
      </trkpt>
      <trkpt lat="35.244100" lon="-118.590420">
        <ele>794.127</ele>
        <time>2018-12-27T17:52:19Z</time>
      </trkpt>
      <trkpt lat="35.243980" lon="-118.590260">
        <ele>793.922</ele>
        <time>2018-12-27T17:52:39Z</time>
      </trkpt>
      <trkpt lat="35.243780" lon="-118.590060">
        <ele>792.782</ele>
        <time>2018-12-27T17:52:59Z</time>
      </trkpt>
      <trkpt lat="35.243640" lon="-118.589940">
        <ele>791.676</ele>
        <time>2018-12-27T17:53:19Z</time>
      </trkpt>
      <trkpt lat="35.243460" lon="-118.589800">
        <ele>789.770</ele>
        <time>2018-12-27T17:53:39Z</time>
      </trkpt>
      <trkpt lat="35.243210" lon="-118.589630">
        <ele>790.329</ele>
        <time>2018-12-27T17:53:59Z</time>
      </trkpt>
      <trkpt lat="35.242910" lon="-118.589430">
        <ele>788.954</ele>
        <time>2018-12-27T17:54:19Z</time>
      </trkpt>
      <trkpt lat="35.242450" lon="-118.589130">
        <ele>783.386</ele>
        <time>2018-12-27T17:54:39Z</time>
      </trkpt>
      <trkpt lat="35.242360" lon="-118.589070">
        <ele>783.260</ele>
        <time>2018-12-27T17:54:59Z</time>
      </trkpt>
      <trkpt lat="35.242170" lon="-118.588930">
        <ele>783.126</ele>
        <time>2018-12-27T17:55:19Z</time>
      </trkpt>
      <trkpt lat="35.242070" lon="-118.588870">
        <ele>782.908</ele>
        <time>2018-12-27T17:55:39Z</time>
      </trkpt>
      <trkpt lat="35.242000" lon="-118.588820">
        <ele>782.741</ele>
        <time>2018-12-27T17:55:59Z</time>
      </trkpt>
      <trkpt lat="35.241890" lon="-118.588730">
        <ele>782.849</ele>
        <time>2018-12-27T17:56:19Z</time>
      </trkpt>
      <trkpt lat="35.241830" lon="-118.588680">
        <ele>782.914</ele>
        <time>2018-12-27T17:56:39Z</time>
      </trkpt>
      <trkpt lat="35.241740" lon="-118.588600">
        <ele>782.654</ele>
        <time>2018-12-27T17:56:59Z</time>
      </trkpt>
      <trkpt lat="35.241660" lon="-118.588530">
        <ele>782.378</ele>
        <time>2018-12-27T17:57:19Z</time>
      </trkpt>
      <trkpt lat="35.241600" lon="-118.588470">
        <ele>782.342</ele>
        <time>2018-12-27T17:57:39Z</time>
      </trkpt>
      <trkpt lat="35.241550" lon="-118.588410">
        <ele>782.221</ele>
        <time>2018-12-27T17:57:59Z</time>
      </trkpt>
      <trkpt lat="35.241470" lon="-118.588320">
        <ele>782.296</ele>
        <time>2018-12-27T17:58:19Z</time>
      </trkpt>
      <trkpt lat="35.241410" lon="-118.588250">
        <ele>782.074</ele>
        <time>2018-12-27T17:58:39Z</time>
      </trkpt>
      <trkpt lat="35.241300" lon="-118.588120">
        <ele>781.556</ele>
        <time>2018-12-27T17:58:59Z</time>
      </trkpt>
      <trkpt lat="35.241230" lon="-118.588030">
        <ele>781.221</ele>
        <time>2018-12-27T17:59:19Z</time>
      </trkpt>
      <trkpt lat="35.241170" lon="-118.587940">
        <ele>781.108</ele>
        <time>2018-12-27T17:59:39Z</time>
      </trkpt>
      <trkpt lat="35.241120" lon="-118.587870">
        <ele>781.260</ele>
        <time>2018-12-27T17:59:59Z</time>
      </trkpt>
      <trkpt lat="35.241050" lon="-118.587750">
        <ele>781.248</ele>
        <time>2018-12-27T18:00:19Z</time>
      </trkpt>
      <trkpt lat="35.240980" lon="-118.587630">
        <ele>781.053</ele>
        <time>2018-12-27T18:00:39Z</time>
      </trkpt>
      <trkpt lat="35.240930" lon="-118.587550">
        <ele>779.253</ele>
        <time>2018-12-27T18:00:59Z</time>
      </trkpt>
      <trkpt lat="35.240900" lon="-118.587480">
        <ele>777.857</ele>
        <time>2018-12-27T18:01:19Z</time>
      </trkpt>
      <trkpt lat="35.240840" lon="-118.587380">
        <ele>776.021</ele>
        <time>2018-12-27T18:01:39Z</time>
      </trkpt>
      <trkpt lat="35.240800" lon="-118.587290">
        <ele>775.210</ele>
        <time>2018-12-27T18:01:59Z</time>
      </trkpt>
      <trkpt lat="35.240770" lon="-118.587220">
        <ele>774.865</ele>
        <time>2018-12-27T18:02:19Z</time>
      </trkpt>
      <trkpt lat="35.240740" lon="-118.587160">
        <ele>774.566</ele>
        <time>2018-12-27T18:02:39Z</time>
      </trkpt>
      <trkpt lat="35.240730" lon="-118.587120">
        <ele>774.329</ele>
        <time>2018-12-27T18:02:59Z</time>
      </trkpt>
      <trkpt lat="35.240700" lon="-118.587050">
        <ele>774.221</ele>
        <time>2018-12-27T18:03:19Z</time>
      </trkpt>
      <trkpt lat="35.240660" lon="-118.586940">
        <ele>774.408</ele>
        <time>2018-12-27T18:03:39Z</time>
      </trkpt>
      <trkpt lat="35.240600" lon="-118.586770">
        <ele>774.829</ele>
        <time>2018-12-27T18:03:59Z</time>
      </trkpt>
      <trkpt lat="35.240560" lon="-118.586620">
        <ele>775.257</ele>
        <time>2018-12-27T18:04:19Z</time>
      </trkpt>
      <trkpt lat="35.240540" lon="-118.586540">
        <ele>775.422</ele>
        <time>2018-12-27T18:04:39Z</time>
      </trkpt>
      <trkpt lat="35.240520" lon="-118.586470">
        <ele>775.532</ele>
        <time>2018-12-27T18:04:59Z</time>
      </trkpt>
      <trkpt lat="35.240490" lon="-118.586350">
        <ele>775.596</ele>
        <time>2018-12-27T18:05:19Z</time>
      </trkpt>
      <trkpt lat="35.240470" lon="-118.586240">
        <ele>775.690</ele>
        <time>2018-12-27T18:05:39Z</time>
      </trkpt>
      <trkpt lat="35.240450" lon="-118.586090">
        <ele>775.629</ele>
        <time>2018-12-27T18:05:59Z</time>
      </trkpt>
      <trkpt lat="35.240370" lon="-118.585640">
        <ele>775.824</ele>
        <time>2018-12-27T18:06:19Z</time>
      </trkpt>
      <trkpt lat="35.240270" lon="-118.584980">
        <ele>773.021</ele>
        <time>2018-12-27T18:06:39Z</time>
      </trkpt>
      <trkpt lat="35.240190" lon="-118.584460">
        <ele>770.041</ele>
        <time>2018-12-27T18:06:59Z</time>
      </trkpt>
      <trkpt lat="35.240000" lon="-118.583260">
        <ele>772.005</ele>
        <time>2018-12-27T18:07:19Z</time>
      </trkpt>
      <trkpt lat="35.239860" lon="-118.582350">
        <ele>766.908</ele>
        <time>2018-12-27T18:07:39Z</time>
      </trkpt>
      <trkpt lat="35.239610" lon="-118.580710">
        <ele>756.085</ele>
        <time>2018-12-27T18:07:59Z</time>
      </trkpt>
      <trkpt lat="35.239540" lon="-118.580250">
        <ele>757.223</ele>
        <time>2018-12-27T18:08:19Z</time>
      </trkpt>
      <trkpt lat="35.239520" lon="-118.580100">
        <ele>756.778</ele>
        <time>2018-12-27T18:08:39Z</time>
      </trkpt>
      <trkpt lat="35.239510" lon="-118.580030">
        <ele>756.378</ele>
        <time>2018-12-27T18:08:59Z</time>
      </trkpt>
      <trkpt lat="35.239490" lon="-118.579950">
        <ele>756.062</ele>
        <time>2018-12-27T18:09:19Z</time>
      </trkpt>
      <trkpt lat="35.239470" lon="-118.579860">
        <ele>755.416</ele>
        <time>2018-12-27T18:09:39Z</time>
      </trkpt>
      <trkpt lat="35.239460" lon="-118.579790">
        <ele>755.025</ele>
        <time>2018-12-27T18:09:59Z</time>
      </trkpt>
      <trkpt lat="35.239430" lon="-118.579670">
        <ele>754.530</ele>
        <time>2018-12-27T18:10:19Z</time>
      </trkpt>
      <trkpt lat="35.239420" lon="-118.579600">
        <ele>754.178</ele>
        <time>2018-12-27T18:10:39Z</time>
      </trkpt>
      <trkpt lat="35.239390" lon="-118.579510">
        <ele>753.333</ele>
        <time>2018-12-27T18:10:59Z</time>
      </trkpt>
      <trkpt lat="35.239360" lon="-118.579410">
        <ele>752.326</ele>
        <time>2018-12-27T18:11:19Z</time>
      </trkpt>
      <trkpt lat="35.239330" lon="-118.579300">
        <ele>751.308</ele>
        <time>2018-12-27T18:11:39Z</time>
      </trkpt>
      <trkpt lat="35.239280" lon="-118.579170">
        <ele>750.580</ele>
        <time>2018-12-27T18:11:59Z</time>
      </trkpt>
      <trkpt lat="35.239240" lon="-118.579060">
        <ele>749.938</ele>
        <time>2018-12-27T18:12:19Z</time>
      </trkpt>
      <trkpt lat="35.239170" lon="-118.578890">
        <ele>749.843</ele>
        <time>2018-12-27T18:12:39Z</time>
      </trkpt>
      <trkpt lat="35.239110" lon="-118.578760">
        <ele>749.863</ele>
        <time>2018-12-27T18:12:59Z</time>
      </trkpt>
      <trkpt lat="35.239020" lon="-118.578590">
        <ele>750.247</ele>
        <time>2018-12-27T18:13:19Z</time>
      </trkpt>
      <trkpt lat="35.238940" lon="-118.578460">
        <ele>751.141</ele>
        <time>2018-12-27T18:13:39Z</time>
      </trkpt>
      <trkpt lat="35.238880" lon="-118.578360">
        <ele>751.580</ele>
        <time>2018-12-27T18:13:59Z</time>
      </trkpt>
      <trkpt lat="35.238810" lon="-118.578260">
        <ele>752.015</ele>
        <time>2018-12-27T18:14:19Z</time>
      </trkpt>
      <trkpt lat="35.238760" lon="-118.578190">
        <ele>752.382</ele>
        <time>2018-12-27T18:14:39Z</time>
      </trkpt>
      <trkpt lat="35.238690" lon="-118.578080">
        <ele>752.743</ele>
        <time>2018-12-27T18:14:59Z</time>
      </trkpt>
      <trkpt lat="35.238600" lon="-118.577970">
        <ele>753.317</ele>
        <time>2018-12-27T18:15:19Z</time>
      </trkpt>
      <trkpt lat="35.238490" lon="-118.577850">
        <ele>753.908</ele>
        <time>2018-12-27T18:15:39Z</time>
      </trkpt>
      <trkpt lat="35.238410" lon="-118.577770">
        <ele>753.811</ele>
        <time>2018-12-27T18:15:59Z</time>
      </trkpt>
      <trkpt lat="35.238330" lon="-118.577680">
        <ele>753.479</ele>
        <time>2018-12-27T18:16:19Z</time>
      </trkpt>
      <trkpt lat="35.238230" lon="-118.577590">
        <ele>753.184</ele>
        <time>2018-12-27T18:16:39Z</time>
      </trkpt>
      <trkpt lat="35.238150" lon="-118.577520">
        <ele>752.594</ele>
        <time>2018-12-27T18:16:59Z</time>
      </trkpt>
      <trkpt lat="35.238000" lon="-118.577410">
        <ele>751.788</ele>
        <time>2018-12-27T18:17:19Z</time>
      </trkpt>
      <trkpt lat="35.237940" lon="-118.577370">
        <ele>751.412</ele>
        <time>2018-12-27T18:17:39Z</time>
      </trkpt>
      <trkpt lat="35.237840" lon="-118.577300">
        <ele>750.991</ele>
        <time>2018-12-27T18:17:59Z</time>
      </trkpt>
      <trkpt lat="35.237730" lon="-118.577230">
        <ele>750.426</ele>
        <time>2018-12-27T18:18:19Z</time>
      </trkpt>
      <trkpt lat="35.237610" lon="-118.577170">
        <ele>750.184</ele>
        <time>2018-12-27T18:18:39Z</time>
      </trkpt>
      <trkpt lat="35.237500" lon="-118.577100">
        <ele>749.707</ele>
        <time>2018-12-27T18:18:59Z</time>
      </trkpt>
      <trkpt lat="35.237210" lon="-118.576950">
        <ele>749.617</ele>
        <time>2018-12-27T18:19:19Z</time>
      </trkpt>
      <trkpt lat="35.236900" lon="-118.576770">
        <ele>750.208</ele>
        <time>2018-12-27T18:19:39Z</time>
      </trkpt>
      <trkpt lat="35.236470" lon="-118.576540">
        <ele>752.411</ele>
        <time>2018-12-27T18:19:59Z</time>
      </trkpt>
      <trkpt lat="35.236210" lon="-118.576400">
        <ele>753.669</ele>
        <time>2018-12-27T18:20:19Z</time>
      </trkpt>
      <trkpt lat="35.235340" lon="-118.575930">
        <ele>754.894</ele>
        <time>2018-12-27T18:20:39Z</time>
      </trkpt>
      <trkpt lat="35.234740" lon="-118.575600">
        <ele>751.094</ele>
        <time>2018-12-27T18:20:59Z</time>
      </trkpt>
      <trkpt lat="35.234620" lon="-118.575530">
        <ele>749.868</ele>
        <time>2018-12-27T18:21:19Z</time>
      </trkpt>
      <trkpt lat="35.234490" lon="-118.575460">
        <ele>750.352</ele>
        <time>2018-12-27T18:21:39Z</time>
      </trkpt>
      <trkpt lat="35.234380" lon="-118.575390">
        <ele>751.021</ele>
        <time>2018-12-27T18:21:59Z</time>
      </trkpt>
      <trkpt lat="35.234320" lon="-118.575340">
        <ele>751.256</ele>
        <time>2018-12-27T18:22:19Z</time>
      </trkpt>
      <trkpt lat="35.234250" lon="-118.575300">
        <ele>752.176</ele>
        <time>2018-12-27T18:22:39Z</time>
      </trkpt>
      <trkpt lat="35.234200" lon="-118.575260">
        <ele>752.690</ele>
        <time>2018-12-27T18:22:59Z</time>
      </trkpt>
      <trkpt lat="35.234110" lon="-118.575190">
        <ele>753.519</ele>
        <time>2018-12-27T18:23:19Z</time>
      </trkpt>
      <trkpt lat="35.234050" lon="-118.575140">
        <ele>754.008</ele>
        <time>2018-12-27T18:23:39Z</time>
      </trkpt>
      <trkpt lat="35.234010" lon="-118.575100">
        <ele>754.280</ele>
        <time>2018-12-27T18:23:59Z</time>
      </trkpt>
      <trkpt lat="35.233960" lon="-118.575060">
        <ele>754.418</ele>
        <time>2018-12-27T18:24:19Z</time>
      </trkpt>
      <trkpt lat="35.233900" lon="-118.575000">
        <ele>754.553</ele>
        <time>2018-12-27T18:24:39Z</time>
      </trkpt>
      <trkpt lat="35.233810" lon="-118.574910">
        <ele>754.473</ele>
        <time>2018-12-27T18:24:59Z</time>
      </trkpt>
      <trkpt lat="35.233640" lon="-118.574720">
        <ele>753.037</ele>
        <time>2018-12-27T18:25:19Z</time>
      </trkpt>
      <trkpt lat="35.233540" lon="-118.574600">
        <ele>751.631</ele>
        <time>2018-12-27T18:25:39Z</time>
      </trkpt>
      <trkpt lat="35.233460" lon="-118.574500">
        <ele>751.330</ele>
        <time>2018-12-27T18:25:59Z</time>
      </trkpt>
      <trkpt lat="35.233400" lon="-118.574410">
        <ele>751.145</ele>
        <time>2018-12-27T18:26:19Z</time>
      </trkpt>
      <trkpt lat="35.233330" lon="-118.574300">
        <ele>751.473</ele>
        <time>2018-12-27T18:26:39Z</time>
      </trkpt>
      <trkpt lat="35.233260" lon="-118.574190">
        <ele>754.085</ele>
        <time>2018-12-27T18:26:59Z</time>
      </trkpt>
      <trkpt lat="35.233200" lon="-118.574090">
        <ele>756.213</ele>
        <time>2018-12-27T18:27:19Z</time>
      </trkpt>
      <trkpt lat="35.233120" lon="-118.573950">
        <ele>757.708</ele>
        <time>2018-12-27T18:27:39Z</time>
      </trkpt>
      <trkpt lat="35.233060" lon="-118.573830">
        <ele>759.320</ele>
        <time>2018-12-27T18:27:59Z</time>
      </trkpt>
      <trkpt lat="35.232750" lon="-118.573220">
        <ele>765.288</ele>
        <time>2018-12-27T18:28:19Z</time>
      </trkpt>
      <trkpt lat="35.232480" lon="-118.572680">
        <ele>767.043</ele>
        <time>2018-12-27T18:28:39Z</time>
      </trkpt>
      <trkpt lat="35.232050" lon="-118.571850">
        <ele>766.643</ele>
        <time>2018-12-27T18:28:59Z</time>
      </trkpt>
      <trkpt lat="35.231660" lon="-118.571090">
        <ele>766.627</ele>
        <time>2018-12-27T18:29:19Z</time>
      </trkpt>
      <trkpt lat="35.231450" lon="-118.570690">
        <ele>767.251</ele>
        <time>2018-12-27T18:29:39Z</time>
      </trkpt>
      <trkpt lat="35.231370" lon="-118.570540">
        <ele>766.840</ele>
        <time>2018-12-27T18:29:59Z</time>
      </trkpt>
      <trkpt lat="35.231290" lon="-118.570380">
        <ele>766.025</ele>
        <time>2018-12-27T18:30:19Z</time>
      </trkpt>
      <trkpt lat="35.231200" lon="-118.570240">
        <ele>765.887</ele>
        <time>2018-12-27T18:30:39Z</time>
      </trkpt>
      <trkpt lat="35.231140" lon="-118.570140">
        <ele>765.742</ele>
        <time>2018-12-27T18:30:59Z</time>
      </trkpt>
      <trkpt lat="35.231050" lon="-118.570010">
        <ele>766.226</ele>
        <time>2018-12-27T18:31:19Z</time>
      </trkpt>
      <trkpt lat="35.230970" lon="-118.569910">
        <ele>767.008</ele>
        <time>2018-12-27T18:31:39Z</time>
      </trkpt>
      <trkpt lat="35.230920" lon="-118.569840">
        <ele>767.521</ele>
        <time>2018-12-27T18:31:59Z</time>
      </trkpt>
      <trkpt lat="35.230800" lon="-118.569700">
        <ele>767.919</ele>
        <time>2018-12-27T18:32:19Z</time>
      </trkpt>
      <trkpt lat="35.230670" lon="-118.569560">
        <ele>768.164</ele>
        <time>2018-12-27T18:32:39Z</time>
      </trkpt>
      <trkpt lat="35.230550" lon="-118.569460">
        <ele>768.384</ele>
        <time>2018-12-27T18:32:59Z</time>
      </trkpt>
      <trkpt lat="35.230490" lon="-118.569400">
        <ele>768.278</ele>
        <time>2018-12-27T18:33:19Z</time>
      </trkpt>
      <trkpt lat="35.230420" lon="-118.569350">
        <ele>768.222</ele>
        <time>2018-12-27T18:33:39Z</time>
      </trkpt>
      <trkpt lat="35.230350" lon="-118.569280">
        <ele>768.161</ele>
        <time>2018-12-27T18:33:59Z</time>
      </trkpt>
      <trkpt lat="35.230250" lon="-118.569210">
        <ele>768.256</ele>
        <time>2018-12-27T18:34:19Z</time>
      </trkpt>
      <trkpt lat="35.230180" lon="-118.569170">
        <ele>768.286</ele>
        <time>2018-12-27T18:34:39Z</time>
      </trkpt>
      <trkpt lat="35.230140" lon="-118.569140">
        <ele>768.260</ele>
        <time>2018-12-27T18:34:59Z</time>
      </trkpt>
      <trkpt lat="35.230050" lon="-118.569080">
        <ele>768.226</ele>
        <time>2018-12-27T18:35:19Z</time>
      </trkpt>
      <trkpt lat="35.230000" lon="-118.569060">
        <ele>768.308</ele>
        <time>2018-12-27T18:35:39Z</time>
      </trkpt>
      <trkpt lat="35.229790" lon="-118.568960">
        <ele>768.921</ele>
        <time>2018-12-27T18:35:59Z</time>
      </trkpt>
      <trkpt lat="35.229540" lon="-118.568860">
        <ele>770.559</ele>
        <time>2018-12-27T18:36:19Z</time>
      </trkpt>
      <trkpt lat="35.229410" lon="-118.568810">
        <ele>771.284</ele>
        <time>2018-12-27T18:36:39Z</time>
      </trkpt>
      <trkpt lat="35.229290" lon="-118.568780">
        <ele>771.764</ele>
        <time>2018-12-27T18:36:59Z</time>
      </trkpt>
      <trkpt lat="35.229020" lon="-118.568730">
        <ele>771.888</ele>
        <time>2018-12-27T18:37:19Z</time>
      </trkpt>
      <trkpt lat="35.228790" lon="-118.568710">
        <ele>771.972</ele>
        <time>2018-12-27T18:37:39Z</time>
      </trkpt>
      <trkpt lat="35.228240" lon="-118.568670">
        <ele>771.881</ele>
        <time>2018-12-27T18:37:59Z</time>
      </trkpt>
      <trkpt lat="35.226360" lon="-118.568560">
        <ele>772.226</ele>
        <time>2018-12-27T18:38:19Z</time>
      </trkpt>
      <trkpt lat="35.225950" lon="-118.568530">
        <ele>773.172</ele>
        <time>2018-12-27T18:38:39Z</time>
      </trkpt>
      <trkpt lat="35.225870" lon="-118.568520">
        <ele>773.313</ele>
        <time>2018-12-27T18:38:59Z</time>
      </trkpt>
      <trkpt lat="35.225800" lon="-118.568510">
        <ele>773.514</ele>
        <time>2018-12-27T18:39:19Z</time>
      </trkpt>
      <trkpt lat="35.225750" lon="-118.568510">
        <ele>773.608</ele>
        <time>2018-12-27T18:39:39Z</time>
      </trkpt>
      <trkpt lat="35.225710" lon="-118.568500">
        <ele>773.760</ele>
        <time>2018-12-27T18:39:59Z</time>
      </trkpt>
      <trkpt lat="35.225660" lon="-118.568490">
        <ele>773.998</ele>
        <time>2018-12-27T18:40:19Z</time>
      </trkpt>
      <trkpt lat="35.225590" lon="-118.568470">
        <ele>774.263</ele>
        <time>2018-12-27T18:40:39Z</time>
      </trkpt>
      <trkpt lat="35.225520" lon="-118.568460">
        <ele>774.753</ele>
        <time>2018-12-27T18:40:59Z</time>
      </trkpt>
      <trkpt lat="35.225370" lon="-118.568410">
        <ele>775.447</ele>
        <time>2018-12-27T18:41:19Z</time>
      </trkpt>
      <trkpt lat="35.225280" lon="-118.568380">
        <ele>775.961</ele>
        <time>2018-12-27T18:41:39Z</time>
      </trkpt>
      <trkpt lat="35.225240" lon="-118.568370">
        <ele>776.160</ele>
        <time>2018-12-27T18:41:59Z</time>
      </trkpt>
      <trkpt lat="35.225170" lon="-118.568340">
        <ele>776.645</ele>
        <time>2018-12-27T18:42:19Z</time>
      </trkpt>
      <trkpt lat="35.225100" lon="-118.568310">
        <ele>777.172</ele>
        <time>2018-12-27T18:42:39Z</time>
      </trkpt>
      <trkpt lat="35.225040" lon="-118.568290">
        <ele>777.513</ele>
        <time>2018-12-27T18:42:59Z</time>
      </trkpt>
      <trkpt lat="35.224940" lon="-118.568240">
        <ele>778.114</ele>
        <time>2018-12-27T18:43:19Z</time>
      </trkpt>
      <trkpt lat="35.224830" lon="-118.568180">
        <ele>779.008</ele>
        <time>2018-12-27T18:43:39Z</time>
      </trkpt>
      <trkpt lat="35.224720" lon="-118.568120">
        <ele>779.920</ele>
        <time>2018-12-27T18:43:59Z</time>
      </trkpt>
      <trkpt lat="35.224640" lon="-118.568070">
        <ele>780.748</ele>
        <time>2018-12-27T18:44:19Z</time>
      </trkpt>
      <trkpt lat="35.224550" lon="-118.568010">
        <ele>781.393</ele>
        <time>2018-12-27T18:44:39Z</time>
      </trkpt>
      <trkpt lat="35.224430" lon="-118.567920">
        <ele>781.523</ele>
        <time>2018-12-27T18:44:59Z</time>
      </trkpt>
      <trkpt lat="35.224300" lon="-118.567820">
        <ele>781.677</ele>
        <time>2018-12-27T18:45:19Z</time>
      </trkpt>
      <trkpt lat="35.224200" lon="-118.567730">
        <ele>781.961</ele>
        <time>2018-12-27T18:45:39Z</time>
      </trkpt>
      <trkpt lat="35.224110" lon="-118.567640">
        <ele>782.250</ele>
        <time>2018-12-27T18:45:59Z</time>
      </trkpt>
      <trkpt lat="35.224020" lon="-118.567560">
        <ele>782.425</ele>
        <time>2018-12-27T18:46:19Z</time>
      </trkpt>
      <trkpt lat="35.223910" lon="-118.567430">
        <ele>782.635</ele>
        <time>2018-12-27T18:46:39Z</time>
      </trkpt>
      <trkpt lat="35.223850" lon="-118.567360">
        <ele>783.086</ele>
        <time>2018-12-27T18:46:59Z</time>
      </trkpt>
      <trkpt lat="35.223780" lon="-118.567280">
        <ele>783.114</ele>
        <time>2018-12-27T18:47:19Z</time>
      </trkpt>
      <trkpt lat="35.223680" lon="-118.567140">
        <ele>783.208</ele>
        <time>2018-12-27T18:47:39Z</time>
      </trkpt>
      <trkpt lat="35.223580" lon="-118.566980">
        <ele>783.346</ele>
        <time>2018-12-27T18:47:59Z</time>
      </trkpt>
      <trkpt lat="35.223510" lon="-118.566880">
        <ele>783.394</ele>
        <time>2018-12-27T18:48:19Z</time>
      </trkpt>
      <trkpt lat="35.223460" lon="-118.566790">
        <ele>783.499</ele>
        <time>2018-12-27T18:48:39Z</time>
      </trkpt>
      <trkpt lat="35.223410" lon="-118.566710">
        <ele>783.549</ele>
        <time>2018-12-27T18:48:59Z</time>
      </trkpt>
      <trkpt lat="35.223330" lon="-118.566560">
        <ele>783.983</ele>
        <time>2018-12-27T18:49:19Z</time>
      </trkpt>
      <trkpt lat="35.223250" lon="-118.566380">
        <ele>784.457</ele>
        <time>2018-12-27T18:49:39Z</time>
      </trkpt>
      <trkpt lat="35.223210" lon="-118.566290">
        <ele>784.776</ele>
        <time>2018-12-27T18:49:59Z</time>
      </trkpt>
      <trkpt lat="35.223180" lon="-118.566200">
        <ele>784.921</ele>
        <time>2018-12-27T18:50:19Z</time>
      </trkpt>
      <trkpt lat="35.223140" lon="-118.566110">
        <ele>785.181</ele>
        <time>2018-12-27T18:50:39Z</time>
      </trkpt>
      <trkpt lat="35.223110" lon="-118.566020">
        <ele>785.361</ele>
        <time>2018-12-27T18:50:59Z</time>
      </trkpt>
      <trkpt lat="35.223070" lon="-118.565900">
        <ele>785.717</ele>
        <time>2018-12-27T18:51:19Z</time>
      </trkpt>
      <trkpt lat="35.223020" lon="-118.565710">
        <ele>786.308</ele>
        <time>2018-12-27T18:51:39Z</time>
      </trkpt>
      <trkpt lat="35.223000" lon="-118.565640">
        <ele>786.611</ele>
        <time>2018-12-27T18:51:59Z</time>
      </trkpt>
      <trkpt lat="35.222980" lon="-118.565540">
        <ele>787.189</ele>
        <time>2018-12-27T18:52:19Z</time>
      </trkpt>
      <trkpt lat="35.222960" lon="-118.565460">
        <ele>787.634</ele>
        <time>2018-12-27T18:52:39Z</time>
      </trkpt>
      <trkpt lat="35.222940" lon="-118.565370">
        <ele>788.724</ele>
        <time>2018-12-27T18:52:59Z</time>
      </trkpt>
      <trkpt lat="35.222910" lon="-118.565230">
        <ele>791.098</ele>
        <time>2018-12-27T18:53:19Z</time>
      </trkpt>
      <trkpt lat="35.222900" lon="-118.565110">
        <ele>792.472</ele>
        <time>2018-12-27T18:53:39Z</time>
      </trkpt>
      <trkpt lat="35.222870" lon="-118.564940">
        <ele>792.851</ele>
        <time>2018-12-27T18:53:59Z</time>
      </trkpt>
      <trkpt lat="35.222840" lon="-118.564650">
        <ele>793.636</ele>
        <time>2018-12-27T18:54:19Z</time>
      </trkpt>
      <trkpt lat="35.222760" lon="-118.563950">
        <ele>796.263</ele>
        <time>2018-12-27T18:54:39Z</time>
      </trkpt>
      <trkpt lat="35.222740" lon="-118.563770">
        <ele>797.844</ele>
        <time>2018-12-27T18:54:59Z</time>
      </trkpt>
      <trkpt lat="35.222720" lon="-118.563660">
        <ele>798.318</ele>
        <time>2018-12-27T18:55:19Z</time>
      </trkpt>
      <trkpt lat="35.222610" lon="-118.562700">
        <ele>803.008</ele>
        <time>2018-12-27T18:55:39Z</time>
      </trkpt>
      <trkpt lat="35.222530" lon="-118.562080">
        <ele>806.259</ele>
        <time>2018-12-27T18:55:59Z</time>
      </trkpt>
      <trkpt lat="35.222470" lon="-118.561610">
        <ele>807.457</ele>
        <time>2018-12-27T18:56:19Z</time>
      </trkpt>
      <trkpt lat="35.222450" lon="-118.561420">
        <ele>808.842</ele>
        <time>2018-12-27T18:56:39Z</time>
      </trkpt>
      <trkpt lat="35.222420" lon="-118.561150">
        <ele>810.742</ele>
        <time>2018-12-27T18:56:59Z</time>
      </trkpt>
      <trkpt lat="35.222380" lon="-118.560890">
        <ele>810.976</ele>
        <time>2018-12-27T18:57:19Z</time>
      </trkpt>
      <trkpt lat="35.222360" lon="-118.560760">
        <ele>811.080</ele>
        <time>2018-12-27T18:57:39Z</time>
      </trkpt>
      <trkpt lat="35.222320" lon="-118.560590">
        <ele>811.539</ele>
        <time>2018-12-27T18:57:59Z</time>
      </trkpt>
      <trkpt lat="35.222290" lon="-118.560450">
        <ele>811.794</ele>
        <time>2018-12-27T18:58:19Z</time>
      </trkpt>
      <trkpt lat="35.222250" lon="-118.560300">
        <ele>812.121</ele>
        <time>2018-12-27T18:58:39Z</time>
      </trkpt>
      <trkpt lat="35.222200" lon="-118.560090">
        <ele>812.341</ele>
        <time>2018-12-27T18:58:59Z</time>
      </trkpt>
      <trkpt lat="35.222150" lon="-118.559940">
        <ele>812.305</ele>
        <time>2018-12-27T18:59:19Z</time>
      </trkpt>
      <trkpt lat="35.222100" lon="-118.559820">
        <ele>812.408</ele>
        <time>2018-12-27T18:59:39Z</time>
      </trkpt>
      <trkpt lat="35.222060" lon="-118.559700">
        <ele>811.865</ele>
        <time>2018-12-27T18:59:59Z</time>
      </trkpt>
      <trkpt lat="35.222020" lon="-118.559590">
        <ele>811.253</ele>
        <time>2018-12-27T19:00:19Z</time>
      </trkpt>
      <trkpt lat="35.221970" lon="-118.559480">
        <ele>811.628</ele>
        <time>2018-12-27T19:00:39Z</time>
      </trkpt>
      <trkpt lat="35.221900" lon="-118.559310">
        <ele>812.998</ele>
        <time>2018-12-27T19:00:59Z</time>
      </trkpt>
      <trkpt lat="35.221840" lon="-118.559200">
        <ele>814.142</ele>
        <time>2018-12-27T19:01:19Z</time>
      </trkpt>
      <trkpt lat="35.221790" lon="-118.559090">
        <ele>815.426</ele>
        <time>2018-12-27T19:01:39Z</time>
      </trkpt>
      <trkpt lat="35.221720" lon="-118.558970">
        <ele>818.075</ele>
        <time>2018-12-27T19:01:59Z</time>
      </trkpt>
      <trkpt lat="35.221670" lon="-118.558880">
        <ele>818.290</ele>
        <time>2018-12-27T19:02:19Z</time>
      </trkpt>
      <trkpt lat="35.221590" lon="-118.558730">
        <ele>816.866</ele>
        <time>2018-12-27T19:02:39Z</time>
      </trkpt>
      <trkpt lat="35.221450" lon="-118.558530">
        <ele>819.529</ele>
        <time>2018-12-27T19:02:59Z</time>
      </trkpt>
      <trkpt lat="35.221290" lon="-118.558280">
        <ele>819.121</ele>
        <time>2018-12-27T19:03:19Z</time>
      </trkpt>
      <trkpt lat="35.221110" lon="-118.558030">
        <ele>819.008</ele>
        <time>2018-12-27T19:03:39Z</time>
      </trkpt>
      <trkpt lat="35.220870" lon="-118.557700">
        <ele>812.939</ele>
        <time>2018-12-27T19:03:59Z</time>
      </trkpt>
      <trkpt lat="35.220650" lon="-118.557370">
        <ele>799.057</ele>
        <time>2018-12-27T19:04:19Z</time>
      </trkpt>
      <trkpt lat="35.220540" lon="-118.557220">
        <ele>799.182</ele>
        <time>2018-12-27T19:04:39Z</time>
      </trkpt>
      <trkpt lat="35.220270" lon="-118.556840">
        <ele>809.882</ele>
        <time>2018-12-27T19:04:59Z</time>
      </trkpt>
      <trkpt lat="35.219950" lon="-118.556380">
        <ele>821.876</ele>
        <time>2018-12-27T19:05:19Z</time>
      </trkpt>
      <trkpt lat="35.219490" lon="-118.555730">
        <ele>823.450</ele>
        <time>2018-12-27T19:05:39Z</time>
      </trkpt>
      <trkpt lat="35.219150" lon="-118.555230">
        <ele>826.159</ele>
        <time>2018-12-27T19:05:59Z</time>
      </trkpt>
      <trkpt lat="35.218730" lon="-118.554640">
        <ele>830.484</ele>
        <time>2018-12-27T19:06:19Z</time>
      </trkpt>
      <trkpt lat="35.218680" lon="-118.554570">
        <ele>830.619</ele>
        <time>2018-12-27T19:06:39Z</time>
      </trkpt>
      <trkpt lat="35.218620" lon="-118.554480">
        <ele>831.009</ele>
        <time>2018-12-27T19:06:59Z</time>
      </trkpt>
      <trkpt lat="35.218560" lon="-118.554390">
        <ele>831.819</ele>
        <time>2018-12-27T19:07:19Z</time>
      </trkpt>
      <trkpt lat="35.218460" lon="-118.554270">
        <ele>833.008</ele>
        <time>2018-12-27T19:07:39Z</time>
      </trkpt>
      <trkpt lat="35.218370" lon="-118.554140">
        <ele>834.034</ele>
        <time>2018-12-27T19:07:59Z</time>
      </trkpt>
      <trkpt lat="35.218280" lon="-118.554030">
        <ele>834.452</ele>
        <time>2018-12-27T19:08:19Z</time>
      </trkpt>
      <trkpt lat="35.218190" lon="-118.553920">
        <ele>834.217</ele>
        <time>2018-12-27T19:08:39Z</time>
      </trkpt>
      <trkpt lat="35.218110" lon="-118.553830">
        <ele>834.497</ele>
        <time>2018-12-27T19:08:59Z</time>
      </trkpt>
      <trkpt lat="35.217990" lon="-118.553700">
        <ele>834.211</ele>
        <time>2018-12-27T19:09:19Z</time>
      </trkpt>
      <trkpt lat="35.217890" lon="-118.553610">
        <ele>833.825</ele>
        <time>2018-12-27T19:09:39Z</time>
      </trkpt>
      <trkpt lat="35.217810" lon="-118.553520">
        <ele>834.014</ele>
        <time>2018-12-27T19:09:59Z</time>
      </trkpt>
      <trkpt lat="35.217690" lon="-118.553420">
        <ele>833.599</ele>
        <time>2018-12-27T19:10:19Z</time>
      </trkpt>
      <trkpt lat="35.217610" lon="-118.553350">
        <ele>833.236</ele>
        <time>2018-12-27T19:10:39Z</time>
      </trkpt>
      <trkpt lat="35.217530" lon="-118.553280">
        <ele>833.117</ele>
        <time>2018-12-27T19:10:59Z</time>
      </trkpt>
      <trkpt lat="35.217480" lon="-118.553240">
        <ele>833.018</ele>
        <time>2018-12-27T19:11:19Z</time>
      </trkpt>
      <trkpt lat="35.217370" lon="-118.553160">
        <ele>832.108</ele>
        <time>2018-12-27T19:11:39Z</time>
      </trkpt>
      <trkpt lat="35.217270" lon="-118.553080">
        <ele>831.236</ele>
        <time>2018-12-27T19:11:59Z</time>
      </trkpt>
      <trkpt lat="35.217140" lon="-118.552980">
        <ele>830.764</ele>
        <time>2018-12-27T19:12:19Z</time>
      </trkpt>
      <trkpt lat="35.217070" lon="-118.552920">
        <ele>830.799</ele>
        <time>2018-12-27T19:12:39Z</time>
      </trkpt>
      <trkpt lat="35.216920" lon="-118.552810">
        <ele>830.849</ele>
        <time>2018-12-27T19:12:59Z</time>
      </trkpt>
      <trkpt lat="35.216820" lon="-118.552730">
        <ele>831.113</ele>
        <time>2018-12-27T19:13:19Z</time>
      </trkpt>
      <trkpt lat="35.216730" lon="-118.552670">
        <ele>833.027</ele>
        <time>2018-12-27T19:13:39Z</time>
      </trkpt>
      <trkpt lat="35.216640" lon="-118.552610">
        <ele>835.986</ele>
        <time>2018-12-27T19:13:59Z</time>
      </trkpt>
      <trkpt lat="35.216570" lon="-118.552570">
        <ele>838.111</ele>
        <time>2018-12-27T19:14:19Z</time>
      </trkpt>
      <trkpt lat="35.216470" lon="-118.552510">
        <ele>840.698</ele>
        <time>2018-12-27T19:14:39Z</time>
      </trkpt>
      <trkpt lat="35.216400" lon="-118.552460">
        <ele>842.015</ele>
        <time>2018-12-27T19:14:59Z</time>
      </trkpt>
      <trkpt lat="35.216260" lon="-118.552360">
        <ele>844.826</ele>
        <time>2018-12-27T19:15:19Z</time>
      </trkpt>
      <trkpt lat="35.216030" lon="-118.552190">
        <ele>846.508</ele>
        <time>2018-12-27T19:15:39Z</time>
      </trkpt>
      <trkpt lat="35.215800" lon="-118.552020">
        <ele>849.942</ele>
        <time>2018-12-27T19:15:59Z</time>
      </trkpt>
      <trkpt lat="35.215690" lon="-118.551940">
        <ele>851.070</ele>
        <time>2018-12-27T19:16:19Z</time>
      </trkpt>
      <trkpt lat="35.215540" lon="-118.551820">
        <ele>852.955</ele>
        <time>2018-12-27T19:16:39Z</time>
      </trkpt>
      <trkpt lat="35.215460" lon="-118.551760">
        <ele>853.255</ele>
        <time>2018-12-27T19:16:59Z</time>
      </trkpt>
      <trkpt lat="35.215370" lon="-118.551670">
        <ele>852.319</ele>
        <time>2018-12-27T19:17:19Z</time>
      </trkpt>
      <trkpt lat="35.215320" lon="-118.551610">
        <ele>851.393</ele>
        <time>2018-12-27T19:17:39Z</time>
      </trkpt>
      <trkpt lat="35.215260" lon="-118.551550">
        <ele>850.142</ele>
        <time>2018-12-27T19:17:59Z</time>
      </trkpt>
      <trkpt lat="35.215170" lon="-118.551450">
        <ele>849.587</ele>
        <time>2018-12-27T19:18:19Z</time>
      </trkpt>
      <trkpt lat="35.215090" lon="-118.551340">
        <ele>849.775</ele>
        <time>2018-12-27T19:18:39Z</time>
      </trkpt>
      <trkpt lat="35.215020" lon="-118.551250">
        <ele>849.928</ele>
        <time>2018-12-27T19:18:59Z</time>
      </trkpt>
      <trkpt lat="35.214980" lon="-118.551200">
        <ele>849.820</ele>
        <time>2018-12-27T19:19:19Z</time>
      </trkpt>
      <trkpt lat="35.214900" lon="-118.551080">
        <ele>849.908</ele>
        <time>2018-12-27T19:19:39Z</time>
      </trkpt>
      <trkpt lat="35.214860" lon="-118.551020">
        <ele>849.960</ele>
        <time>2018-12-27T19:19:59Z</time>
      </trkpt>
      <trkpt lat="35.214810" lon="-118.550940">
        <ele>850.858</ele>
        <time>2018-12-27T19:20:19Z</time>
      </trkpt>
      <trkpt lat="35.214750" lon="-118.550840">
        <ele>852.083</ele>
        <time>2018-12-27T19:20:39Z</time>
      </trkpt>
      <trkpt lat="35.214710" lon="-118.550780">
        <ele>852.823</ele>
        <time>2018-12-27T19:20:59Z</time>
      </trkpt>
      <trkpt lat="35.214660" lon="-118.550700">
        <ele>853.847</ele>
        <time>2018-12-27T19:21:19Z</time>
      </trkpt>
      <trkpt lat="35.214620" lon="-118.550620">
        <ele>853.581</ele>
        <time>2018-12-27T19:21:39Z</time>
      </trkpt>
      <trkpt lat="35.214580" lon="-118.550540">
        <ele>852.750</ele>
        <time>2018-12-27T19:21:59Z</time>
      </trkpt>
      <trkpt lat="35.214530" lon="-118.550420">
        <ele>850.995</ele>
        <time>2018-12-27T19:22:19Z</time>
      </trkpt>
      <trkpt lat="35.214450" lon="-118.550260">
        <ele>849.491</ele>
        <time>2018-12-27T19:22:39Z</time>
      </trkpt>
      <trkpt lat="35.214390" lon="-118.550120">
        <ele>848.081</ele>
        <time>2018-12-27T19:22:59Z</time>
      </trkpt>
      <trkpt lat="35.214320" lon="-118.549980">
        <ele>848.119</ele>
        <time>2018-12-27T19:23:19Z</time>
      </trkpt>
      <trkpt lat="35.214240" lon="-118.549840">
        <ele>848.308</ele>
        <time>2018-12-27T19:23:39Z</time>
      </trkpt>
      <trkpt lat="35.214180" lon="-118.549720">
        <ele>849.712</ele>
        <time>2018-12-27T19:23:59Z</time>
      </trkpt>
      <trkpt lat="35.214150" lon="-118.549660">
        <ele>850.940</ele>
        <time>2018-12-27T19:24:19Z</time>
      </trkpt>
      <trkpt lat="35.214120" lon="-118.549610">
        <ele>852.225</ele>
        <time>2018-12-27T19:24:39Z</time>
      </trkpt>
      <trkpt lat="35.214100" lon="-118.549570">
        <ele>853.275</ele>
        <time>2018-12-27T19:24:59Z</time>
      </trkpt>
      <trkpt lat="35.214070" lon="-118.549520">
        <ele>853.739</ele>
        <time>2018-12-27T19:25:19Z</time>
      </trkpt>
      <trkpt lat="35.214040" lon="-118.549460">
        <ele>854.133</ele>
        <time>2018-12-27T19:25:39Z</time>
      </trkpt>
      <trkpt lat="35.213940" lon="-118.549260">
        <ele>853.892</ele>
        <time>2018-12-27T19:25:59Z</time>
      </trkpt>
      <trkpt lat="35.213720" lon="-118.548820">
        <ele>854.737</ele>
        <time>2018-12-27T19:26:19Z</time>
      </trkpt>
      <trkpt lat="35.213640" lon="-118.548660">
        <ele>855.197</ele>
        <time>2018-12-27T19:26:39Z</time>
      </trkpt>
      <trkpt lat="35.213510" lon="-118.548410">
        <ele>856.923</ele>
        <time>2018-12-27T19:26:59Z</time>
      </trkpt>
      <trkpt lat="35.213200" lon="-118.547790">
        <ele>858.225</ele>
        <time>2018-12-27T19:27:19Z</time>
      </trkpt>
      <trkpt lat="35.212940" lon="-118.547260">
        <ele>859.108</ele>
        <time>2018-12-27T19:27:39Z</time>
      </trkpt>
      <trkpt lat="35.212160" lon="-118.545780">
        <ele>865.752</ele>
        <time>2018-12-27T19:27:59Z</time>
      </trkpt>
      <trkpt lat="35.211960" lon="-118.545390">
        <ele>866.360</ele>
        <time>2018-12-27T19:28:19Z</time>
      </trkpt>
      <trkpt lat="35.211680" lon="-118.544830">
        <ele>867.185</ele>
        <time>2018-12-27T19:28:39Z</time>
      </trkpt>
      <trkpt lat="35.211560" lon="-118.544590">
        <ele>870.295</ele>
        <time>2018-12-27T19:28:59Z</time>
      </trkpt>
      <trkpt lat="35.211480" lon="-118.544420">
        <ele>870.899</ele>
        <time>2018-12-27T19:29:19Z</time>
      </trkpt>
      <trkpt lat="35.211330" lon="-118.544140">
        <ele>871.173</ele>
        <time>2018-12-27T19:29:39Z</time>
      </trkpt>
      <trkpt lat="35.211240" lon="-118.543960">
        <ele>872.312</ele>
        <time>2018-12-27T19:29:59Z</time>
      </trkpt>
      <trkpt lat="35.211180" lon="-118.543830">
        <ele>873.017</ele>
        <time>2018-12-27T19:30:19Z</time>
      </trkpt>
      <trkpt lat="35.211100" lon="-118.543660">
        <ele>873.529</ele>
        <time>2018-12-27T19:30:39Z</time>
      </trkpt>
      <trkpt lat="35.210940" lon="-118.543360">
        <ele>873.100</ele>
        <time>2018-12-27T19:30:59Z</time>
      </trkpt>
      <trkpt lat="35.210820" lon="-118.543140">
        <ele>870.420</ele>
        <time>2018-12-27T19:31:19Z</time>
      </trkpt>
      <trkpt lat="35.210720" lon="-118.542950">
        <ele>869.008</ele>
        <time>2018-12-27T19:31:39Z</time>
      </trkpt>
      <trkpt lat="35.210580" lon="-118.542660">
        <ele>867.115</ele>
        <time>2018-12-27T19:31:59Z</time>
      </trkpt>
      <trkpt lat="35.210450" lon="-118.542400">
        <ele>870.713</ele>
        <time>2018-12-27T19:32:19Z</time>
      </trkpt>
      <trkpt lat="35.210310" lon="-118.542120">
        <ele>872.358</ele>
        <time>2018-12-27T19:32:39Z</time>
      </trkpt>
      <trkpt lat="35.210120" lon="-118.541750">
        <ele>870.688</ele>
        <time>2018-12-27T19:32:59Z</time>
      </trkpt>
      <trkpt lat="35.210020" lon="-118.541570">
        <ele>871.132</ele>
        <time>2018-12-27T19:33:19Z</time>
      </trkpt>
      <trkpt lat="35.209960" lon="-118.541430">
        <ele>872.476</ele>
        <time>2018-12-27T19:33:39Z</time>
      </trkpt>
      <trkpt lat="35.209830" lon="-118.541170">
        <ele>875.655</ele>
        <time>2018-12-27T19:33:59Z</time>
      </trkpt>
      <trkpt lat="35.209680" lon="-118.540870">
        <ele>878.010</ele>
        <time>2018-12-27T19:34:19Z</time>
      </trkpt>
      <trkpt lat="35.209570" lon="-118.540650">
        <ele>877.217</ele>
        <time>2018-12-27T19:34:39Z</time>
      </trkpt>
      <trkpt lat="35.209480" lon="-118.540450">
        <ele>877.887</ele>
        <time>2018-12-27T19:34:59Z</time>
      </trkpt>
      <trkpt lat="35.209360" lon="-118.540190">
        <ele>881.715</ele>
        <time>2018-12-27T19:35:19Z</time>
      </trkpt>
      <trkpt lat="35.209300" lon="-118.540050">
        <ele>882.908</ele>
        <time>2018-12-27T19:35:39Z</time>
      </trkpt>
      <trkpt lat="35.209230" lon="-118.539880">
        <ele>885.664</ele>
        <time>2018-12-27T19:35:59Z</time>
      </trkpt>
      <trkpt lat="35.209160" lon="-118.539710">
        <ele>884.962</ele>
        <time>2018-12-27T19:36:19Z</time>
      </trkpt>
      <trkpt lat="35.209120" lon="-118.539600">
        <ele>884.027</ele>
        <time>2018-12-27T19:36:39Z</time>
      </trkpt>
      <trkpt lat="35.209070" lon="-118.539460">
        <ele>882.827</ele>
        <time>2018-12-27T19:36:59Z</time>
      </trkpt>
      <trkpt lat="35.209030" lon="-118.539360">
        <ele>881.891</ele>
        <time>2018-12-27T19:37:19Z</time>
      </trkpt>
      <trkpt lat="35.208970" lon="-118.539200">
        <ele>881.125</ele>
        <time>2018-12-27T19:37:39Z</time>
      </trkpt>
      <trkpt lat="35.208880" lon="-118.538920">
        <ele>880.444</ele>
        <time>2018-12-27T19:37:59Z</time>
      </trkpt>
      <trkpt lat="35.208790" lon="-118.538680">
        <ele>880.149</ele>
        <time>2018-12-27T19:38:19Z</time>
      </trkpt>
      <trkpt lat="35.208730" lon="-118.538510">
        <ele>880.552</ele>
        <time>2018-12-27T19:38:39Z</time>
      </trkpt>
      <trkpt lat="35.208700" lon="-118.538430">
        <ele>880.953</ele>
        <time>2018-12-27T19:38:59Z</time>
      </trkpt>
      <trkpt lat="35.208660" lon="-118.538290">
        <ele>881.308</ele>
        <time>2018-12-27T19:39:19Z</time>
      </trkpt>
      <trkpt lat="35.208600" lon="-118.538120">
        <ele>881.308</ele>
        <time>2018-12-27T19:39:39Z</time>
      </trkpt>
      <trkpt lat="35.208530" lon="-118.537910">
        <ele>880.818</ele>
        <time>2018-12-27T19:39:59Z</time>
      </trkpt>
      <trkpt lat="35.208450" lon="-118.537690">
        <ele>879.926</ele>
        <time>2018-12-27T19:40:19Z</time>
      </trkpt>
      <trkpt lat="35.208370" lon="-118.537470">
        <ele>878.261</ele>
        <time>2018-12-27T19:40:39Z</time>
      </trkpt>
      <trkpt lat="35.208300" lon="-118.537270">
        <ele>878.071</ele>
        <time>2018-12-27T19:40:59Z</time>
      </trkpt>
      <trkpt lat="35.208200" lon="-118.536980">
        <ele>879.125</ele>
        <time>2018-12-27T19:41:19Z</time>
      </trkpt>
      <trkpt lat="35.208090" lon="-118.536640">
        <ele>880.079</ele>
        <time>2018-12-27T19:41:39Z</time>
      </trkpt>
      <trkpt lat="35.208000" lon="-118.536370">
        <ele>881.588</ele>
        <time>2018-12-27T19:41:59Z</time>
      </trkpt>
      <trkpt lat="35.207940" lon="-118.536220">
        <ele>882.453</ele>
        <time>2018-12-27T19:42:19Z</time>
      </trkpt>
      <trkpt lat="35.207900" lon="-118.536100">
        <ele>882.986</ele>
        <time>2018-12-27T19:42:39Z</time>
      </trkpt>
      <trkpt lat="35.207840" lon="-118.535940">
        <ele>883.660</ele>
        <time>2018-12-27T19:42:59Z</time>
      </trkpt>
      <trkpt lat="35.207820" lon="-118.535900">
        <ele>883.926</ele>
        <time>2018-12-27T19:43:19Z</time>
      </trkpt>
      <trkpt lat="35.207790" lon="-118.535830">
        <ele>884.508</ele>
        <time>2018-12-27T19:43:39Z</time>
      </trkpt>
      <trkpt lat="35.207750" lon="-118.535730">
        <ele>885.461</ele>
        <time>2018-12-27T19:43:59Z</time>
      </trkpt>
      <trkpt lat="35.207700" lon="-118.535650">
        <ele>885.849</ele>
        <time>2018-12-27T19:44:19Z</time>
      </trkpt>
      <trkpt lat="35.207630" lon="-118.535510">
        <ele>886.074</ele>
        <time>2018-12-27T19:44:39Z</time>
      </trkpt>
      <trkpt lat="35.207570" lon="-118.535400">
        <ele>885.494</ele>
        <time>2018-12-27T19:44:59Z</time>
      </trkpt>
      <trkpt lat="35.207530" lon="-118.535330">
        <ele>884.748</ele>
        <time>2018-12-27T19:45:19Z</time>
      </trkpt>
      <trkpt lat="35.207490" lon="-118.535260">
        <ele>884.152</ele>
        <time>2018-12-27T19:45:39Z</time>
      </trkpt>
      <trkpt lat="35.207450" lon="-118.535190">
        <ele>883.641</ele>
        <time>2018-12-27T19:45:59Z</time>
      </trkpt>
      <trkpt lat="35.207390" lon="-118.535110">
        <ele>883.166</ele>
        <time>2018-12-27T19:46:19Z</time>
      </trkpt>
      <trkpt lat="35.207340" lon="-118.535030">
        <ele>883.477</ele>
        <time>2018-12-27T19:46:39Z</time>
      </trkpt>
      <trkpt lat="35.207260" lon="-118.534920">
        <ele>883.561</ele>
        <time>2018-12-27T19:46:59Z</time>
      </trkpt>
      <trkpt lat="35.207210" lon="-118.534860">
        <ele>883.527</ele>
        <time>2018-12-27T19:47:19Z</time>
      </trkpt>
      <trkpt lat="35.207160" lon="-118.534790">
        <ele>883.808</ele>
        <time>2018-12-27T19:47:39Z</time>
      </trkpt>
      <trkpt lat="35.207080" lon="-118.534680">
        <ele>884.420</ele>
        <time>2018-12-27T19:47:59Z</time>
      </trkpt>
      <trkpt lat="35.206980" lon="-118.534560">
        <ele>884.778</ele>
        <time>2018-12-27T19:48:19Z</time>
      </trkpt>
      <trkpt lat="35.206870" lon="-118.534420">
        <ele>886.133</ele>
        <time>2018-12-27T19:48:39Z</time>
      </trkpt>
      <trkpt lat="35.206820" lon="-118.534360">
        <ele>887.073</ele>
        <time>2018-12-27T19:48:59Z</time>
      </trkpt>
      <trkpt lat="35.206520" lon="-118.533980">
        <ele>892.957</ele>
        <time>2018-12-27T19:49:19Z</time>
      </trkpt>
      <trkpt lat="35.206160" lon="-118.533510">
        <ele>897.971</ele>
        <time>2018-12-27T19:49:39Z</time>
      </trkpt>
      <trkpt lat="35.205870" lon="-118.533150">
        <ele>900.160</ele>
        <time>2018-12-27T19:49:59Z</time>
      </trkpt>
      <trkpt lat="35.205460" lon="-118.532630">
        <ele>901.085</ele>
        <time>2018-12-27T19:50:19Z</time>
      </trkpt>
      <trkpt lat="35.205210" lon="-118.532310">
        <ele>902.369</ele>
        <time>2018-12-27T19:50:39Z</time>
      </trkpt>
      <trkpt lat="35.204990" lon="-118.532030">
        <ele>904.704</ele>
        <time>2018-12-27T19:50:59Z</time>
      </trkpt>
      <trkpt lat="35.204830" lon="-118.531830">
        <ele>909.824</ele>
        <time>2018-12-27T19:51:19Z</time>
      </trkpt>
      <trkpt lat="35.204530" lon="-118.531450">
        <ele>912.408</ele>
        <time>2018-12-27T19:51:39Z</time>
      </trkpt>
      <trkpt lat="35.204430" lon="-118.531310">
        <ele>912.889</ele>
        <time>2018-12-27T19:51:59Z</time>
      </trkpt>
      <trkpt lat="35.204270" lon="-118.531120">
        <ele>912.977</ele>
        <time>2018-12-27T19:52:19Z</time>
      </trkpt>
      <trkpt lat="35.204140" lon="-118.530950">
        <ele>913.062</ele>
        <time>2018-12-27T19:52:39Z</time>
      </trkpt>
      <trkpt lat="35.204020" lon="-118.530790">
        <ele>912.982</ele>
        <time>2018-12-27T19:52:59Z</time>
      </trkpt>
      <trkpt lat="35.203900" lon="-118.530640">
        <ele>912.746</ele>
        <time>2018-12-27T19:53:19Z</time>
      </trkpt>
      <trkpt lat="35.203820" lon="-118.530520">
        <ele>912.770</ele>
        <time>2018-12-27T19:53:39Z</time>
      </trkpt>
      <trkpt lat="35.203730" lon="-118.530390">
        <ele>912.649</ele>
        <time>2018-12-27T19:53:59Z</time>
      </trkpt>
      <trkpt lat="35.203660" lon="-118.530280">
        <ele>912.984</ele>
        <time>2018-12-27T19:54:19Z</time>
      </trkpt>
      <trkpt lat="35.203570" lon="-118.530140">
        <ele>913.489</ele>
        <time>2018-12-27T19:54:39Z</time>
      </trkpt>
      <trkpt lat="35.203500" lon="-118.530020">
        <ele>913.706</ele>
        <time>2018-12-27T19:54:59Z</time>
      </trkpt>
      <trkpt lat="35.203430" lon="-118.529890">
        <ele>914.326</ele>
        <time>2018-12-27T19:55:19Z</time>
      </trkpt>
      <trkpt lat="35.203350" lon="-118.529740">
        <ele>914.908</ele>
        <time>2018-12-27T19:55:39Z</time>
      </trkpt>
      <trkpt lat="35.203330" lon="-118.529700">
        <ele>915.031</ele>
        <time>2018-12-27T19:55:59Z</time>
      </trkpt>
      <trkpt lat="35.203300" lon="-118.529620">
        <ele>915.179</ele>
        <time>2018-12-27T19:56:19Z</time>
      </trkpt>
      <trkpt lat="35.203230" lon="-118.529470">
        <ele>915.354</ele>
        <time>2018-12-27T19:56:39Z</time>
      </trkpt>
      <trkpt lat="35.203130" lon="-118.529250">
        <ele>915.554</ele>
        <time>2018-12-27T19:56:59Z</time>
      </trkpt>
      <trkpt lat="35.202990" lon="-118.528940">
        <ele>915.528</ele>
        <time>2018-12-27T19:57:19Z</time>
      </trkpt>
      <trkpt lat="35.202800" lon="-118.528510">
        <ele>913.932</ele>
        <time>2018-12-27T19:57:39Z</time>
      </trkpt>
      <trkpt lat="35.202720" lon="-118.528330">
        <ele>914.321</ele>
        <time>2018-12-27T19:57:59Z</time>
      </trkpt>
      <trkpt lat="35.202500" lon="-118.527800">
        <ele>916.416</ele>
        <time>2018-12-27T19:58:19Z</time>
      </trkpt>
      <trkpt lat="35.202420" lon="-118.527630">
        <ele>916.726</ele>
        <time>2018-12-27T19:58:39Z</time>
      </trkpt>
      <trkpt lat="35.202240" lon="-118.527220">
        <ele>918.347</ele>
        <time>2018-12-27T19:58:59Z</time>
      </trkpt>
      <trkpt lat="35.202080" lon="-118.526830">
        <ele>920.311</ele>
        <time>2018-12-27T19:59:19Z</time>
      </trkpt>
      <trkpt lat="35.201120" lon="-118.524630">
        <ele>931.708</ele>
        <time>2018-12-27T19:59:39Z</time>
      </trkpt>
      <trkpt lat="35.201030" lon="-118.524420">
        <ele>933.355</ele>
        <time>2018-12-27T19:59:59Z</time>
      </trkpt>
      <trkpt lat="35.200900" lon="-118.524130">
        <ele>935.763</ele>
        <time>2018-12-27T20:00:19Z</time>
      </trkpt>
      <trkpt lat="35.200780" lon="-118.523850">
        <ele>936.748</ele>
        <time>2018-12-27T20:00:39Z</time>
      </trkpt>
      <trkpt lat="35.200650" lon="-118.523540">
        <ele>937.278</ele>
        <time>2018-12-27T20:00:59Z</time>
      </trkpt>
      <trkpt lat="35.200480" lon="-118.523160">
        <ele>938.882</ele>
        <time>2018-12-27T20:01:19Z</time>
      </trkpt>
      <trkpt lat="35.200220" lon="-118.522560">
        <ele>940.026</ele>
        <time>2018-12-27T20:01:39Z</time>
      </trkpt>
      <trkpt lat="35.200010" lon="-118.522080">
        <ele>943.375</ele>
        <time>2018-12-27T20:01:59Z</time>
      </trkpt>
      <trkpt lat="35.199890" lon="-118.521800">
        <ele>945.720</ele>
        <time>2018-12-27T20:02:19Z</time>
      </trkpt>
      <trkpt lat="35.199780" lon="-118.521520">
        <ele>947.289</ele>
        <time>2018-12-27T20:02:39Z</time>
      </trkpt>
      <trkpt lat="35.199650" lon="-118.521230">
        <ele>948.106</ele>
        <time>2018-12-27T20:02:59Z</time>
      </trkpt>
      <trkpt lat="35.199470" lon="-118.520810">
        <ele>948.526</ele>
        <time>2018-12-27T20:03:19Z</time>
      </trkpt>
      <trkpt lat="35.199380" lon="-118.520610">
        <ele>948.508</ele>
        <time>2018-12-27T20:03:39Z</time>
      </trkpt>
      <trkpt lat="35.199320" lon="-118.520470">
        <ele>948.521</ele>
        <time>2018-12-27T20:03:59Z</time>
      </trkpt>
      <trkpt lat="35.199210" lon="-118.520230">
        <ele>948.259</ele>
        <time>2018-12-27T20:04:19Z</time>
      </trkpt>
      <trkpt lat="35.199150" lon="-118.520100">
        <ele>948.164</ele>
        <time>2018-12-27T20:04:39Z</time>
      </trkpt>
      <trkpt lat="35.199090" lon="-118.519970">
        <ele>948.074</ele>
        <time>2018-12-27T20:04:59Z</time>
      </trkpt>
      <trkpt lat="35.199050" lon="-118.519890">
        <ele>947.898</ele>
        <time>2018-12-27T20:05:19Z</time>
      </trkpt>
      <trkpt lat="35.198920" lon="-118.519660">
        <ele>949.172</ele>
        <time>2018-12-27T20:05:39Z</time>
      </trkpt>
      <trkpt lat="35.198860" lon="-118.519550">
        <ele>950.071</ele>
        <time>2018-12-27T20:05:59Z</time>
      </trkpt>
      <trkpt lat="35.198800" lon="-118.519460">
        <ele>950.986</ele>
        <time>2018-12-27T20:06:19Z</time>
      </trkpt>
      <trkpt lat="35.198720" lon="-118.519330">
        <ele>950.951</ele>
        <time>2018-12-27T20:06:39Z</time>
      </trkpt>
      <trkpt lat="35.198630" lon="-118.519180">
        <ele>947.501</ele>
        <time>2018-12-27T20:06:59Z</time>
      </trkpt>
      <trkpt lat="35.198400" lon="-118.518830">
        <ele>949.611</ele>
        <time>2018-12-27T20:07:19Z</time>
      </trkpt>
      <trkpt lat="35.197960" lon="-118.518200">
        <ele>954.708</ele>
        <time>2018-12-27T20:07:39Z</time>
      </trkpt>
      <trkpt lat="35.197760" lon="-118.517900">
        <ele>956.128</ele>
        <time>2018-12-27T20:07:59Z</time>
      </trkpt>
      <trkpt lat="35.197500" lon="-118.517520">
        <ele>962.086</ele>
        <time>2018-12-27T20:08:19Z</time>
      </trkpt>
      <trkpt lat="35.197240" lon="-118.517130">
        <ele>965.641</ele>
        <time>2018-12-27T20:08:39Z</time>
      </trkpt>
      <trkpt lat="35.197020" lon="-118.516820">
        <ele>968.281</ele>
        <time>2018-12-27T20:08:59Z</time>
      </trkpt>
      <trkpt lat="35.196750" lon="-118.516420">
        <ele>968.265</ele>
        <time>2018-12-27T20:09:19Z</time>
      </trkpt>
      <trkpt lat="35.196660" lon="-118.516290">
        <ele>968.089</ele>
        <time>2018-12-27T20:09:39Z</time>
      </trkpt>
      <trkpt lat="35.196540" lon="-118.516100">
        <ele>968.538</ele>
        <time>2018-12-27T20:09:59Z</time>
      </trkpt>
      <trkpt lat="35.196340" lon="-118.515820">
        <ele>971.743</ele>
        <time>2018-12-27T20:10:19Z</time>
      </trkpt>
      <trkpt lat="35.196220" lon="-118.515640">
        <ele>976.196</ele>
        <time>2018-12-27T20:10:39Z</time>
      </trkpt>
      <trkpt lat="35.196100" lon="-118.515460">
        <ele>976.531</ele>
        <time>2018-12-27T20:10:59Z</time>
      </trkpt>
      <trkpt lat="35.195910" lon="-118.515190">
        <ele>978.524</ele>
        <time>2018-12-27T20:11:19Z</time>
      </trkpt>
      <trkpt lat="35.195830" lon="-118.515070">
        <ele>979.908</ele>
        <time>2018-12-27T20:11:39Z</time>
      </trkpt>
      <trkpt lat="35.195670" lon="-118.514840">
        <ele>982.012</ele>
        <time>2018-12-27T20:11:59Z</time>
      </trkpt>
      <trkpt lat="35.195420" lon="-118.514480">
        <ele>987.360</ele>
        <time>2018-12-27T20:12:19Z</time>
      </trkpt>
      <trkpt lat="35.195140" lon="-118.514060">
        <ele>988.165</ele>
        <time>2018-12-27T20:12:39Z</time>
      </trkpt>
      <trkpt lat="35.194900" lon="-118.513720">
        <ele>986.365</ele>
        <time>2018-12-27T20:12:59Z</time>
      </trkpt>
      <trkpt lat="35.194410" lon="-118.513000">
        <ele>997.849</ele>
        <time>2018-12-27T20:13:19Z</time>
      </trkpt>
      <trkpt lat="35.194260" lon="-118.512790">
        <ele>999.393</ele>
        <time>2018-12-27T20:13:39Z</time>
      </trkpt>
      <trkpt lat="35.193840" lon="-118.512160">
        <ele>997.142</ele>
        <time>2018-12-27T20:13:59Z</time>
      </trkpt>
      <trkpt lat="35.193630" lon="-118.511860">
        <ele>997.147</ele>
        <time>2018-12-27T20:14:19Z</time>
      </trkpt>
      <trkpt lat="35.193310" lon="-118.511380">
        <ele>999.855</ele>
        <time>2018-12-27T20:14:39Z</time>
      </trkpt>
      <trkpt lat="35.193150" lon="-118.511150">
        <ele>1000.807</ele>
        <time>2018-12-27T20:14:59Z</time>
      </trkpt>
      <trkpt lat="35.192870" lon="-118.510750">
        <ele>1002.817</ele>
        <time>2018-12-27T20:15:19Z</time>
      </trkpt>
      <trkpt lat="35.192570" lon="-118.510300">
        <ele>1002.208</ele>
        <time>2018-12-27T20:15:39Z</time>
      </trkpt>
      <trkpt lat="35.192200" lon="-118.509770">
        <ele>1005.188</ele>
        <time>2018-12-27T20:15:59Z</time>
      </trkpt>
      <trkpt lat="35.191950" lon="-118.509410">
        <ele>1006.116</ele>
        <time>2018-12-27T20:16:19Z</time>
      </trkpt>
      <trkpt lat="35.191610" lon="-118.508910">
        <ele>1008.731</ele>
        <time>2018-12-27T20:16:39Z</time>
      </trkpt>
      <trkpt lat="35.191300" lon="-118.508440">
        <ele>1012.741</ele>
        <time>2018-12-27T20:16:59Z</time>
      </trkpt>
      <trkpt lat="35.191060" lon="-118.508100">
        <ele>1012.865</ele>
        <time>2018-12-27T20:17:19Z</time>
      </trkpt>
      <trkpt lat="35.190710" lon="-118.507590">
        <ele>1014.039</ele>
        <time>2018-12-27T20:17:39Z</time>
      </trkpt>
      <trkpt lat="35.190560" lon="-118.507370">
        <ele>1014.888</ele>
        <time>2018-12-27T20:17:59Z</time>
      </trkpt>
      <trkpt lat="35.190380" lon="-118.507110">
        <ele>1013.893</ele>
        <time>2018-12-27T20:18:19Z</time>
      </trkpt>
      <trkpt lat="35.190250" lon="-118.506910">
        <ele>1013.154</ele>
        <time>2018-12-27T20:18:39Z</time>
      </trkpt>
      <trkpt lat="35.190130" lon="-118.506730">
        <ele>1012.956</ele>
        <time>2018-12-27T20:18:59Z</time>
      </trkpt>
      <trkpt lat="35.190030" lon="-118.506580">
        <ele>1012.711</ele>
        <time>2018-12-27T20:19:19Z</time>
      </trkpt>
      <trkpt lat="35.189970" lon="-118.506500">
        <ele>1013.008</ele>
        <time>2018-12-27T20:19:39Z</time>
      </trkpt>
      <trkpt lat="35.189870" lon="-118.506370">
        <ele>1013.568</ele>
        <time>2018-12-27T20:19:59Z</time>
      </trkpt>
      <trkpt lat="35.189840" lon="-118.506320">
        <ele>1013.816</ele>
        <time>2018-12-27T20:20:19Z</time>
      </trkpt>
      <trkpt lat="35.189770" lon="-118.506240">
        <ele>1014.071</ele>
        <time>2018-12-27T20:20:39Z</time>
      </trkpt>
      <trkpt lat="35.189680" lon="-118.506140">
        <ele>1017.041</ele>
        <time>2018-12-27T20:20:59Z</time>
      </trkpt>
      <trkpt lat="35.189600" lon="-118.506040">
        <ele>1021.615</ele>
        <time>2018-12-27T20:21:19Z</time>
      </trkpt>
      <trkpt lat="35.189490" lon="-118.505920">
        <ele>1024.439</ele>
        <time>2018-12-27T20:21:39Z</time>
      </trkpt>
      <trkpt lat="35.189430" lon="-118.505850">
        <ele>1024.458</ele>
        <time>2018-12-27T20:21:59Z</time>
      </trkpt>
      <trkpt lat="35.189350" lon="-118.505770">
        <ele>1024.613</ele>
        <time>2018-12-27T20:22:19Z</time>
      </trkpt>
      <trkpt lat="35.189280" lon="-118.505700">
        <ele>1025.096</ele>
        <time>2018-12-27T20:22:39Z</time>
      </trkpt>
      <trkpt lat="35.189180" lon="-118.505600">
        <ele>1025.831</ele>
        <time>2018-12-27T20:22:59Z</time>
      </trkpt>
      <trkpt lat="35.189090" lon="-118.505520">
        <ele>1026.724</ele>
        <time>2018-12-27T20:23:19Z</time>
      </trkpt>
      <trkpt lat="35.188980" lon="-118.505430">
        <ele>1028.808</ele>
        <time>2018-12-27T20:23:39Z</time>
      </trkpt>
      <trkpt lat="35.188890" lon="-118.505350">
        <ele>1031.182</ele>
        <time>2018-12-27T20:23:59Z</time>
      </trkpt>
      <trkpt lat="35.188770" lon="-118.505260">
        <ele>1033.110</ele>
        <time>2018-12-27T20:24:19Z</time>
      </trkpt>
      <trkpt lat="35.188640" lon="-118.505160">
        <ele>1034.255</ele>
        <time>2018-12-27T20:24:39Z</time>
      </trkpt>
      <trkpt lat="35.188530" lon="-118.505080">
        <ele>1034.975</ele>
        <time>2018-12-27T20:24:59Z</time>
      </trkpt>
      <trkpt lat="35.188420" lon="-118.505010">
        <ele>1035.969</ele>
        <time>2018-12-27T20:25:19Z</time>
      </trkpt>
      <trkpt lat="35.188270" lon="-118.504910">
        <ele>1036.163</ele>
        <time>2018-12-27T20:25:39Z</time>
      </trkpt>
      <trkpt lat="35.188090" lon="-118.504800">
        <ele>1037.362</ele>
        <time>2018-12-27T20:25:59Z</time>
      </trkpt>
      <trkpt lat="35.187880" lon="-118.504660">
        <ele>1037.537</ele>
        <time>2018-12-27T20:26:19Z</time>
      </trkpt>
      <trkpt lat="35.187610" lon="-118.504480">
        <ele>1037.181</ele>
        <time>2018-12-27T20:26:39Z</time>
      </trkpt>
      <trkpt lat="35.187450" lon="-118.504370">
        <ele>1037.361</ele>
        <time>2018-12-27T20:26:59Z</time>
      </trkpt>
      <trkpt lat="35.187270" lon="-118.504240">
        <ele>1036.717</ele>
        <time>2018-12-27T20:27:19Z</time>
      </trkpt>
      <trkpt lat="35.187200" lon="-118.504200">
        <ele>1036.208</ele>
        <time>2018-12-27T20:27:39Z</time>
      </trkpt>
      <trkpt lat="35.187170" lon="-118.504170">
        <ele>1036.031</ele>
        <time>2018-12-27T20:27:59Z</time>
      </trkpt>
      <trkpt lat="35.187130" lon="-118.504140">
        <ele>1035.839</ele>
        <time>2018-12-27T20:28:19Z</time>
      </trkpt>
      <trkpt lat="35.187060" lon="-118.504090">
        <ele>1035.084</ele>
        <time>2018-12-27T20:28:39Z</time>
      </trkpt>
      <trkpt lat="35.187000" lon="-118.504030">
        <ele>1033.724</ele>
        <time>2018-12-27T20:28:59Z</time>
      </trkpt>
      <trkpt lat="35.186890" lon="-118.503940">
        <ele>1032.838</ele>
        <time>2018-12-27T20:29:19Z</time>
      </trkpt>
      <trkpt lat="35.186790" lon="-118.503850">
        <ele>1032.442</ele>
        <time>2018-12-27T20:29:39Z</time>
      </trkpt>
      <trkpt lat="35.186710" lon="-118.503780">
        <ele>1032.451</ele>
        <time>2018-12-27T20:29:59Z</time>
      </trkpt>
      <trkpt lat="35.186610" lon="-118.503670">
        <ele>1032.616</ele>
        <time>2018-12-27T20:30:19Z</time>
      </trkpt>
      <trkpt lat="35.186550" lon="-118.503620">
        <ele>1032.492</ele>
        <time>2018-12-27T20:30:39Z</time>
      </trkpt>
      <trkpt lat="35.186490" lon="-118.503550">
        <ele>1032.373</ele>
        <time>2018-12-27T20:30:59Z</time>
      </trkpt>
      <trkpt lat="35.186430" lon="-118.503490">
        <ele>1032.320</ele>
        <time>2018-12-27T20:31:19Z</time>
      </trkpt>
      <trkpt lat="35.186360" lon="-118.503410">
        <ele>1032.208</ele>
        <time>2018-12-27T20:31:39Z</time>
      </trkpt>
      <trkpt lat="35.186310" lon="-118.503360">
        <ele>1031.812</ele>
        <time>2018-12-27T20:31:59Z</time>
      </trkpt>
      <trkpt lat="35.186240" lon="-118.503270">
        <ele>1031.450</ele>
        <time>2018-12-27T20:32:19Z</time>
      </trkpt>
      <trkpt lat="35.186210" lon="-118.503230">
        <ele>1031.055</ele>
        <time>2018-12-27T20:32:39Z</time>
      </trkpt>
      <trkpt lat="35.186120" lon="-118.503130">
        <ele>1030.195</ele>
        <time>2018-12-27T20:32:59Z</time>
      </trkpt>
      <trkpt lat="35.186050" lon="-118.503040">
        <ele>1029.499</ele>
        <time>2018-12-27T20:33:19Z</time>
      </trkpt>
      <trkpt lat="35.185970" lon="-118.502940">
        <ele>1028.813</ele>
        <time>2018-12-27T20:33:39Z</time>
      </trkpt>
      <trkpt lat="35.185950" lon="-118.502910">
        <ele>1028.692</ele>
        <time>2018-12-27T20:33:59Z</time>
      </trkpt>
      <trkpt lat="35.185900" lon="-118.502840">
        <ele>1027.827</ele>
        <time>2018-12-27T20:34:19Z</time>
      </trkpt>
      <trkpt lat="35.185870" lon="-118.502790">
        <ele>1027.596</ele>
        <time>2018-12-27T20:34:39Z</time>
      </trkpt>
      <trkpt lat="35.185830" lon="-118.502740">
        <ele>1027.131</ele>
        <time>2018-12-27T20:34:59Z</time>
      </trkpt>
      <trkpt lat="35.185790" lon="-118.502680">
        <ele>1026.824</ele>
        <time>2018-12-27T20:35:19Z</time>
      </trkpt>
      <trkpt lat="35.185730" lon="-118.502590">
        <ele>1026.608</ele>
        <time>2018-12-27T20:35:39Z</time>
      </trkpt>
      <trkpt lat="35.185570" lon="-118.502340">
        <ele>1024.762</ele>
        <time>2018-12-27T20:35:59Z</time>
      </trkpt>
      <trkpt lat="35.185380" lon="-118.502060">
        <ele>1023.170</ele>
        <time>2018-12-27T20:36:19Z</time>
      </trkpt>
      <trkpt lat="35.185290" lon="-118.501920">
        <ele>1020.645</ele>
        <time>2018-12-27T20:36:39Z</time>
      </trkpt>
      <trkpt lat="35.185050" lon="-118.501550">
        <ele>1018.625</ele>
        <time>2018-12-27T20:36:59Z</time>
      </trkpt>
      <trkpt lat="35.184930" lon="-118.501370">
        <ele>1018.049</ele>
        <time>2018-12-27T20:37:19Z</time>
      </trkpt>
      <trkpt lat="35.184830" lon="-118.501210">
        <ele>1021.033</ele>
        <time>2018-12-27T20:37:39Z</time>
      </trkpt>
      <trkpt lat="35.184780" lon="-118.501140">
        <ele>1017.952</ele>
        <time>2018-12-27T20:37:59Z</time>
      </trkpt>
      <trkpt lat="35.184710" lon="-118.501020">
        <ele>1015.777</ele>
        <time>2018-12-27T20:38:19Z</time>
      </trkpt>
      <trkpt lat="35.184630" lon="-118.500900">
        <ele>1014.725</ele>
        <time>2018-12-27T20:38:39Z</time>
      </trkpt>
      <trkpt lat="35.184550" lon="-118.500780">
        <ele>1015.726</ele>
        <time>2018-12-27T20:38:59Z</time>
      </trkpt>
      <trkpt lat="35.184480" lon="-118.500670">
        <ele>1017.808</ele>
        <time>2018-12-27T20:39:19Z</time>
      </trkpt>
      <trkpt lat="35.184380" lon="-118.500510">
        <ele>1020.708</ele>
        <time>2018-12-27T20:39:39Z</time>
      </trkpt>
      <trkpt lat="35.184300" lon="-118.500370">
        <ele>1023.875</ele>
        <time>2018-12-27T20:39:59Z</time>
      </trkpt>
      <trkpt lat="35.184230" lon="-118.500250">
        <ele>1023.943</ele>
        <time>2018-12-27T20:40:19Z</time>
      </trkpt>
      <trkpt lat="35.184150" lon="-118.500110">
        <ele>1024.158</ele>
        <time>2018-12-27T20:40:39Z</time>
      </trkpt>
      <trkpt lat="35.184090" lon="-118.500000">
        <ele>1022.048</ele>
        <time>2018-12-27T20:40:59Z</time>
      </trkpt>
      <trkpt lat="35.184040" lon="-118.499900">
        <ele>1019.282</ele>
        <time>2018-12-27T20:41:19Z</time>
      </trkpt>
      <trkpt lat="35.183960" lon="-118.499740">
        <ele>1015.886</ele>
        <time>2018-12-27T20:41:39Z</time>
      </trkpt>
      <trkpt lat="35.183890" lon="-118.499610">
        <ele>1014.585</ele>
        <time>2018-12-27T20:41:59Z</time>
      </trkpt>
      <trkpt lat="35.183830" lon="-118.499480">
        <ele>1014.030</ele>
        <time>2018-12-27T20:42:19Z</time>
      </trkpt>
      <trkpt lat="35.183730" lon="-118.499260">
        <ele>1013.124</ele>
        <time>2018-12-27T20:42:39Z</time>
      </trkpt>
      <trkpt lat="35.183610" lon="-118.499010">
        <ele>1011.704</ele>
        <time>2018-12-27T20:42:59Z</time>
      </trkpt>
      <trkpt lat="35.183490" lon="-118.498760">
        <ele>1014.114</ele>
        <time>2018-12-27T20:43:19Z</time>
      </trkpt>
      <trkpt lat="35.183420" lon="-118.498610">
        <ele>1013.008</ele>
        <time>2018-12-27T20:43:39Z</time>
      </trkpt>
      <trkpt lat="35.183230" lon="-118.498200">
        <ele>1015.555</ele>
        <time>2018-12-27T20:43:59Z</time>
      </trkpt>
      <trkpt lat="35.183050" lon="-118.497800">
        <ele>1013.923</ele>
        <time>2018-12-27T20:44:19Z</time>
      </trkpt>
      <trkpt lat="35.183010" lon="-118.497720">
        <ele>1014.538</ele>
        <time>2018-12-27T20:44:39Z</time>
      </trkpt>
      <trkpt lat="35.182780" lon="-118.497210">
        <ele>1014.748</ele>
        <time>2018-12-27T20:44:59Z</time>
      </trkpt>
      <trkpt lat="35.182650" lon="-118.496940">
        <ele>1015.232</ele>
        <time>2018-12-27T20:45:19Z</time>
      </trkpt>
      <trkpt lat="35.182520" lon="-118.496660">
        <ele>1014.336</ele>
        <time>2018-12-27T20:45:39Z</time>
      </trkpt>
      <trkpt lat="35.182400" lon="-118.496400">
        <ele>1013.925</ele>
        <time>2018-12-27T20:45:59Z</time>
      </trkpt>
      <trkpt lat="35.182330" lon="-118.496250">
        <ele>1013.880</ele>
        <time>2018-12-27T20:46:19Z</time>
      </trkpt>
      <trkpt lat="35.182270" lon="-118.496100">
        <ele>1014.437</ele>
        <time>2018-12-27T20:46:39Z</time>
      </trkpt>
      <trkpt lat="35.182250" lon="-118.496050">
        <ele>1014.549</ele>
        <time>2018-12-27T20:46:59Z</time>
      </trkpt>
      <trkpt lat="35.182220" lon="-118.495970">
        <ele>1014.613</ele>
        <time>2018-12-27T20:47:19Z</time>
      </trkpt>
      <trkpt lat="35.182190" lon="-118.495900">
        <ele>1014.508</ele>
        <time>2018-12-27T20:47:39Z</time>
      </trkpt>
      <trkpt lat="35.182160" lon="-118.495810">
        <ele>1014.686</ele>
        <time>2018-12-27T20:47:59Z</time>
      </trkpt>
      <trkpt lat="35.182130" lon="-118.495720">
        <ele>1014.514</ele>
        <time>2018-12-27T20:48:19Z</time>
      </trkpt>
      <trkpt lat="35.182100" lon="-118.495640">
        <ele>1014.249</ele>
        <time>2018-12-27T20:48:39Z</time>
      </trkpt>
      <trkpt lat="35.182080" lon="-118.495580">
        <ele>1014.169</ele>
        <time>2018-12-27T20:48:59Z</time>
      </trkpt>
      <trkpt lat="35.182070" lon="-118.495520">
        <ele>1014.523</ele>
        <time>2018-12-27T20:49:19Z</time>
      </trkpt>
      <trkpt lat="35.182040" lon="-118.495420">
        <ele>1014.727</ele>
        <time>2018-12-27T20:49:39Z</time>
      </trkpt>
      <trkpt lat="35.182020" lon="-118.495350">
        <ele>1014.836</ele>
        <time>2018-12-27T20:49:59Z</time>
      </trkpt>
      <trkpt lat="35.182000" lon="-118.495240">
        <ele>1015.121</ele>
        <time>2018-12-27T20:50:19Z</time>
      </trkpt>
      <trkpt lat="35.181980" lon="-118.495140">
        <ele>1015.345</ele>
        <time>2018-12-27T20:50:39Z</time>
      </trkpt>
      <trkpt lat="35.181970" lon="-118.495090">
        <ele>1015.547</ele>
        <time>2018-12-27T20:50:59Z</time>
      </trkpt>
      <trkpt lat="35.181960" lon="-118.495030">
        <ele>1015.711</ele>
        <time>2018-12-27T20:51:19Z</time>
      </trkpt>
      <trkpt lat="35.181940" lon="-118.494920">
        <ele>1016.108</ele>
        <time>2018-12-27T20:51:39Z</time>
      </trkpt>
      <trkpt lat="35.181920" lon="-118.494770">
        <ele>1016.817</ele>
        <time>2018-12-27T20:51:59Z</time>
      </trkpt>
      <trkpt lat="35.181900" lon="-118.494590">
        <ele>1017.695</ele>
        <time>2018-12-27T20:52:19Z</time>
      </trkpt>
      <trkpt lat="35.181770" lon="-118.493470">
        <ele>1017.110</ele>
        <time>2018-12-27T20:52:39Z</time>
      </trkpt>
      <trkpt lat="35.181650" lon="-118.492450">
        <ele>1017.790</ele>
        <time>2018-12-27T20:52:59Z</time>
      </trkpt>
      <trkpt lat="35.181570" lon="-118.491800">
        <ele>1016.384</ele>
        <time>2018-12-27T20:53:19Z</time>
      </trkpt>
      <trkpt lat="35.181510" lon="-118.491250">
        <ele>1019.658</ele>
        <time>2018-12-27T20:53:39Z</time>
      </trkpt>
      <trkpt lat="35.181460" lon="-118.490840">
        <ele>1022.547</ele>
        <time>2018-12-27T20:53:59Z</time>
      </trkpt>
      <trkpt lat="35.181430" lon="-118.490560">
        <ele>1023.772</ele>
        <time>2018-12-27T20:54:19Z</time>
      </trkpt>
      <trkpt lat="35.181400" lon="-118.490310">
        <ele>1023.327</ele>
        <time>2018-12-27T20:54:39Z</time>
      </trkpt>
      <trkpt lat="35.181370" lon="-118.490110">
        <ele>1021.668</ele>
        <time>2018-12-27T20:54:59Z</time>
      </trkpt>
      <trkpt lat="35.181350" lon="-118.489980">
        <ele>1021.714</ele>
        <time>2018-12-27T20:55:19Z</time>
      </trkpt>
      <trkpt lat="35.181330" lon="-118.489870">
        <ele>1021.608</ele>
        <time>2018-12-27T20:55:39Z</time>
      </trkpt>
      <trkpt lat="35.181300" lon="-118.489710">
        <ele>1022.165</ele>
        <time>2018-12-27T20:55:59Z</time>
      </trkpt>
      <trkpt lat="35.181270" lon="-118.489600">
        <ele>1021.923</ele>
        <time>2018-12-27T20:56:19Z</time>
      </trkpt>
      <trkpt lat="35.181250" lon="-118.489510">
        <ele>1021.888</ele>
        <time>2018-12-27T20:56:39Z</time>
      </trkpt>
      <trkpt lat="35.181210" lon="-118.489380">
        <ele>1022.228</ele>
        <time>2018-12-27T20:56:59Z</time>
      </trkpt>
      <trkpt lat="35.181190" lon="-118.489300">
        <ele>1022.412</ele>
        <time>2018-12-27T20:57:19Z</time>
      </trkpt>
      <trkpt lat="35.181160" lon="-118.489220">
        <ele>1022.516</ele>
        <time>2018-12-27T20:57:39Z</time>
      </trkpt>
      <trkpt lat="35.181110" lon="-118.489080">
        <ele>1022.855</ele>
        <time>2018-12-27T20:57:59Z</time>
      </trkpt>
      <trkpt lat="35.181080" lon="-118.489000">
        <ele>1022.910</ele>
        <time>2018-12-27T20:58:19Z</time>
      </trkpt>
      <trkpt lat="35.181050" lon="-118.488930">
        <ele>1023.032</ele>
        <time>2018-12-27T20:58:39Z</time>
      </trkpt>
      <trkpt lat="35.181030" lon="-118.488880">
        <ele>1023.192</ele>
        <time>2018-12-27T20:58:59Z</time>
      </trkpt>
      <trkpt lat="35.180990" lon="-118.488810">
        <ele>1023.011</ele>
        <time>2018-12-27T20:59:19Z</time>
      </trkpt>
      <trkpt lat="35.180960" lon="-118.488730">
        <ele>1023.208</ele>
        <time>2018-12-27T20:59:39Z</time>
      </trkpt>
      <trkpt lat="35.180920" lon="-118.488660">
        <ele>1023.566</ele>
        <time>2018-12-27T20:59:59Z</time>
      </trkpt>
      <trkpt lat="35.180880" lon="-118.488580">
        <ele>1023.794</ele>
        <time>2018-12-27T21:00:19Z</time>
      </trkpt>
      <trkpt lat="35.180840" lon="-118.488510">
        <ele>1024.049</ele>
        <time>2018-12-27T21:00:39Z</time>
      </trkpt>
      <trkpt lat="35.180770" lon="-118.488400">
        <ele>1025.019</ele>
        <time>2018-12-27T21:00:59Z</time>
      </trkpt>
      <trkpt lat="35.180740" lon="-118.488350">
        <ele>1025.793</ele>
        <time>2018-12-27T21:01:19Z</time>
      </trkpt>
      <trkpt lat="35.180690" lon="-118.488280">
        <ele>1026.737</ele>
        <time>2018-12-27T21:01:39Z</time>
      </trkpt>
      <trkpt lat="35.180590" lon="-118.488130">
        <ele>1028.066</ele>
        <time>2018-12-27T21:01:59Z</time>
      </trkpt>
      <trkpt lat="35.180520" lon="-118.488040">
        <ele>1028.681</ele>
        <time>2018-12-27T21:02:19Z</time>
      </trkpt>
      <trkpt lat="35.180430" lon="-118.487920">
        <ele>1029.192</ele>
        <time>2018-12-27T21:02:39Z</time>
      </trkpt>
      <trkpt lat="35.180360" lon="-118.487820">
        <ele>1029.973</ele>
        <time>2018-12-27T21:02:59Z</time>
      </trkpt>
      <trkpt lat="35.180320" lon="-118.487770">
        <ele>1030.520</ele>
        <time>2018-12-27T21:03:19Z</time>
      </trkpt>
      <trkpt lat="35.180270" lon="-118.487700">
        <ele>1031.508</ele>
        <time>2018-12-27T21:03:39Z</time>
      </trkpt>
      <trkpt lat="35.180180" lon="-118.487570">
        <ele>1033.722</ele>
        <time>2018-12-27T21:03:59Z</time>
      </trkpt>
      <trkpt lat="35.180080" lon="-118.487440">
        <ele>1036.170</ele>
        <time>2018-12-27T21:04:19Z</time>
      </trkpt>
      <trkpt lat="35.180000" lon="-118.487330">
        <ele>1038.935</ele>
        <time>2018-12-27T21:04:39Z</time>
      </trkpt>
      <trkpt lat="35.179930" lon="-118.487240">
        <ele>1040.395</ele>
        <time>2018-12-27T21:04:59Z</time>
      </trkpt>
      <trkpt lat="35.179830" lon="-118.487100">
        <ele>1040.769</ele>
        <time>2018-12-27T21:05:19Z</time>
      </trkpt>
      <trkpt lat="35.179750" lon="-118.486990">
        <ele>1040.453</ele>
        <time>2018-12-27T21:05:39Z</time>
      </trkpt>
      <trkpt lat="35.179660" lon="-118.486870">
        <ele>1040.312</ele>
        <time>2018-12-27T21:05:59Z</time>
      </trkpt>
      <trkpt lat="35.179580" lon="-118.486740">
        <ele>1040.787</ele>
        <time>2018-12-27T21:06:19Z</time>
      </trkpt>
      <trkpt lat="35.179540" lon="-118.486670">
        <ele>1040.793</ele>
        <time>2018-12-27T21:06:39Z</time>
      </trkpt>
      <trkpt lat="35.179440" lon="-118.486500">
        <ele>1041.365</ele>
        <time>2018-12-27T21:06:59Z</time>
      </trkpt>
      <trkpt lat="35.179390" lon="-118.486410">
        <ele>1041.421</ele>
        <time>2018-12-27T21:07:19Z</time>
      </trkpt>
      <trkpt lat="35.179340" lon="-118.486320">
        <ele>1041.508</ele>
        <time>2018-12-27T21:07:39Z</time>
      </trkpt>
      <trkpt lat="35.179210" lon="-118.486060">
        <ele>1041.842</ele>
        <time>2018-12-27T21:07:59Z</time>
      </trkpt>
      <trkpt lat="35.179090" lon="-118.485790">
        <ele>1041.910</ele>
        <time>2018-12-27T21:08:19Z</time>
      </trkpt>
      <trkpt lat="35.178920" lon="-118.485360">
        <ele>1040.895</ele>
        <time>2018-12-27T21:08:39Z</time>
      </trkpt>
      <trkpt lat="35.178360" lon="-118.483940">
        <ele>1051.715</ele>
        <time>2018-12-27T21:08:59Z</time>
      </trkpt>
      <trkpt lat="35.178180" lon="-118.483460">
        <ele>1054.249</ele>
        <time>2018-12-27T21:09:19Z</time>
      </trkpt>
      <trkpt lat="35.177990" lon="-118.483040">
        <ele>1055.673</ele>
        <time>2018-12-27T21:09:39Z</time>
      </trkpt>
      <trkpt lat="35.177860" lon="-118.482800">
        <ele>1055.372</ele>
        <time>2018-12-27T21:09:59Z</time>
      </trkpt>
      <trkpt lat="35.177690" lon="-118.482500">
        <ele>1055.157</ele>
        <time>2018-12-27T21:10:19Z</time>
      </trkpt>
      <trkpt lat="35.177460" lon="-118.482150">
        <ele>1060.085</ele>
        <time>2018-12-27T21:10:39Z</time>
      </trkpt>
      <trkpt lat="35.177280" lon="-118.481920">
        <ele>1063.789</ele>
        <time>2018-12-27T21:10:59Z</time>
      </trkpt>
      <trkpt lat="35.177090" lon="-118.481690">
        <ele>1065.217</ele>
        <time>2018-12-27T21:11:19Z</time>
      </trkpt>
      <trkpt lat="35.176890" lon="-118.481480">
        <ele>1065.808</ele>
        <time>2018-12-27T21:11:39Z</time>
      </trkpt>
      <trkpt lat="35.176700" lon="-118.481290">
        <ele>1066.591</ele>
        <time>2018-12-27T21:11:59Z</time>
      </trkpt>
      <trkpt lat="35.176500" lon="-118.481120">
        <ele>1066.939</ele>
        <time>2018-12-27T21:12:19Z</time>
      </trkpt>
      <trkpt lat="35.176370" lon="-118.481020">
        <ele>1066.754</ele>
        <time>2018-12-27T21:12:39Z</time>
      </trkpt>
      <trkpt lat="35.176130" lon="-118.480860">
        <ele>1065.544</ele>
        <time>2018-12-27T21:12:59Z</time>
      </trkpt>
      <trkpt lat="35.175720" lon="-118.480610">
        <ele>1064.578</ele>
        <time>2018-12-27T21:13:19Z</time>
      </trkpt>
      <trkpt lat="35.174970" lon="-118.480150">
        <ele>1066.432</ele>
        <time>2018-12-27T21:13:39Z</time>
      </trkpt>
      <trkpt lat="35.174550" lon="-118.479900">
        <ele>1065.311</ele>
        <time>2018-12-27T21:13:59Z</time>
      </trkpt>
      <trkpt lat="35.174270" lon="-118.479720">
        <ele>1061.796</ele>
        <time>2018-12-27T21:14:19Z</time>
      </trkpt>
      <trkpt lat="35.174030" lon="-118.479540">
        <ele>1064.969</ele>
        <time>2018-12-27T21:14:39Z</time>
      </trkpt>
      <trkpt lat="35.173840" lon="-118.479380">
        <ele>1072.604</ele>
        <time>2018-12-27T21:14:59Z</time>
      </trkpt>
      <trkpt lat="35.173620" lon="-118.479180">
        <ele>1077.724</ele>
        <time>2018-12-27T21:15:19Z</time>
      </trkpt>
      <trkpt lat="35.173500" lon="-118.479060">
        <ele>1078.808</ele>
        <time>2018-12-27T21:15:39Z</time>
      </trkpt>
      <trkpt lat="35.173130" lon="-118.478650">
        <ele>1076.829</ele>
        <time>2018-12-27T21:15:59Z</time>
      </trkpt>
      <trkpt lat="35.172200" lon="-118.477560">
        <ele>1087.427</ele>
        <time>2018-12-27T21:16:19Z</time>
      </trkpt>
      <trkpt lat="35.171910" lon="-118.477240">
        <ele>1088.042</ele>
        <time>2018-12-27T21:16:39Z</time>
      </trkpt>
      <trkpt lat="35.171610" lon="-118.476920">
        <ele>1089.662</ele>
        <time>2018-12-27T21:16:59Z</time>
      </trkpt>
      <trkpt lat="35.171180" lon="-118.476510">
        <ele>1094.546</ele>
        <time>2018-12-27T21:17:19Z</time>
      </trkpt>
      <trkpt lat="35.170380" lon="-118.475730">
        <ele>1098.890</ele>
        <time>2018-12-27T21:17:39Z</time>
      </trkpt>
      <trkpt lat="35.169970" lon="-118.475330">
        <ele>1098.799</ele>
        <time>2018-12-27T21:17:59Z</time>
      </trkpt>
      <trkpt lat="35.169480" lon="-118.474860">
        <ele>1101.424</ele>
        <time>2018-12-27T21:18:19Z</time>
      </trkpt>
      <trkpt lat="35.169250" lon="-118.474640">
        <ele>1102.853</ele>
        <time>2018-12-27T21:18:39Z</time>
      </trkpt>
      <trkpt lat="35.169130" lon="-118.474530">
        <ele>1103.304</ele>
        <time>2018-12-27T21:18:59Z</time>
      </trkpt>
      <trkpt lat="35.168940" lon="-118.474360">
        <ele>1104.614</ele>
        <time>2018-12-27T21:19:19Z</time>
      </trkpt>
      <trkpt lat="35.168810" lon="-118.474260">
        <ele>1106.008</ele>
        <time>2018-12-27T21:19:39Z</time>
      </trkpt>
      <trkpt lat="35.168600" lon="-118.474110">
        <ele>1109.228</ele>
        <time>2018-12-27T21:19:59Z</time>
      </trkpt>
      <trkpt lat="35.168380" lon="-118.473990">
        <ele>1111.326</ele>
        <time>2018-12-27T21:20:19Z</time>
      </trkpt>
      <trkpt lat="35.168190" lon="-118.473900">
        <ele>1112.121</ele>
        <time>2018-12-27T21:20:39Z</time>
      </trkpt>
      <trkpt lat="35.168000" lon="-118.473830">
        <ele>1112.561</ele>
        <time>2018-12-27T21:20:59Z</time>
      </trkpt>
      <trkpt lat="35.167850" lon="-118.473790">
        <ele>1112.895</ele>
        <time>2018-12-27T21:21:19Z</time>
      </trkpt>
      <trkpt lat="35.167600" lon="-118.473730">
        <ele>1113.269</ele>
        <time>2018-12-27T21:21:39Z</time>
      </trkpt>
      <trkpt lat="35.167460" lon="-118.473710">
        <ele>1113.338</ele>
        <time>2018-12-27T21:21:59Z</time>
      </trkpt>
      <trkpt lat="35.167230" lon="-118.473690">
        <ele>1113.223</ele>
        <time>2018-12-27T21:22:19Z</time>
      </trkpt>
      <trkpt lat="35.164780" lon="-118.473410">
        <ele>1118.985</ele>
        <time>2018-12-27T21:22:39Z</time>
      </trkpt>
      <trkpt lat="35.164280" lon="-118.473370">
        <ele>1123.289</ele>
        <time>2018-12-27T21:22:59Z</time>
      </trkpt>
      <trkpt lat="35.164180" lon="-118.473360">
        <ele>1123.217</ele>
        <time>2018-12-27T21:23:19Z</time>
      </trkpt>
      <trkpt lat="35.164080" lon="-118.473350">
        <ele>1123.208</ele>
        <time>2018-12-27T21:23:39Z</time>
      </trkpt>
      <trkpt lat="35.163900" lon="-118.473350">
        <ele>1124.061</ele>
        <time>2018-12-27T21:23:59Z</time>
      </trkpt>
      <trkpt lat="35.163700" lon="-118.473360">
        <ele>1125.259</ele>
        <time>2018-12-27T21:24:19Z</time>
      </trkpt>
      <trkpt lat="35.163610" lon="-118.473370">
        <ele>1125.654</ele>
        <time>2018-12-27T21:24:39Z</time>
      </trkpt>
      <trkpt lat="35.163440" lon="-118.473390">
        <ele>1126.274</ele>
        <time>2018-12-27T21:24:59Z</time>
      </trkpt>
      <trkpt lat="35.163270" lon="-118.473420">
        <ele>1126.018</ele>
        <time>2018-12-27T21:25:19Z</time>
      </trkpt>
      <trkpt lat="35.163090" lon="-118.473460">
        <ele>1125.982</ele>
        <time>2018-12-27T21:25:39Z</time>
      </trkpt>
      <trkpt lat="35.161830" lon="-118.473810">
        <ele>1127.581</ele>
        <time>2018-12-27T21:25:59Z</time>
      </trkpt>
      <trkpt lat="35.161700" lon="-118.473840">
        <ele>1127.386</ele>
        <time>2018-12-27T21:26:19Z</time>
      </trkpt>
      <trkpt lat="35.161510" lon="-118.473880">
        <ele>1126.939</ele>
        <time>2018-12-27T21:26:39Z</time>
      </trkpt>
      <trkpt lat="35.161340" lon="-118.473920">
        <ele>1126.701</ele>
        <time>2018-12-27T21:26:59Z</time>
      </trkpt>
      <trkpt lat="35.161130" lon="-118.473940">
        <ele>1130.821</ele>
        <time>2018-12-27T21:27:19Z</time>
      </trkpt>
      <trkpt lat="35.161000" lon="-118.473960">
        <ele>1135.308</ele>
        <time>2018-12-27T21:27:39Z</time>
      </trkpt>
      <trkpt lat="35.160840" lon="-118.473970">
        <ele>1136.766</ele>
        <time>2018-12-27T21:27:59Z</time>
      </trkpt>
      <trkpt lat="35.160660" lon="-118.473980">
        <ele>1136.944</ele>
        <time>2018-12-27T21:28:19Z</time>
      </trkpt>
      <trkpt lat="35.159530" lon="-118.473950">
        <ele>1135.679</ele>
        <time>2018-12-27T21:28:39Z</time>
      </trkpt>
      <trkpt lat="35.157890" lon="-118.473910">
        <ele>1141.459</ele>
        <time>2018-12-27T21:28:59Z</time>
      </trkpt>
      <trkpt lat="35.157720" lon="-118.473910">
        <ele>1146.793</ele>
        <time>2018-12-27T21:29:19Z</time>
      </trkpt>
      <trkpt lat="35.157300" lon="-118.473890">
        <ele>1149.027</ele>
        <time>2018-12-27T21:29:39Z</time>
      </trkpt>
      <trkpt lat="35.157070" lon="-118.473880">
        <ele>1148.666</ele>
        <time>2018-12-27T21:29:59Z</time>
      </trkpt>
      <trkpt lat="35.156910" lon="-118.473860">
        <ele>1149.111</ele>
        <time>2018-12-27T21:30:19Z</time>
      </trkpt>
      <trkpt lat="35.156650" lon="-118.473820">
        <ele>1149.379</ele>
        <time>2018-12-27T21:30:39Z</time>
      </trkpt>
      <trkpt lat="35.156490" lon="-118.473780">
        <ele>1149.805</ele>
        <time>2018-12-27T21:30:59Z</time>
      </trkpt>
      <trkpt lat="35.156280" lon="-118.473710">
        <ele>1150.425</ele>
        <time>2018-12-27T21:31:19Z</time>
      </trkpt>
      <trkpt lat="35.156140" lon="-118.473660">
        <ele>1150.408</ele>
        <time>2018-12-27T21:31:39Z</time>
      </trkpt>
      <trkpt lat="35.155970" lon="-118.473590">
        <ele>1150.590</ele>
        <time>2018-12-27T21:31:59Z</time>
      </trkpt>
      <trkpt lat="35.155840" lon="-118.473520">
        <ele>1150.398</ele>
        <time>2018-12-27T21:32:19Z</time>
      </trkpt>
      <trkpt lat="35.155660" lon="-118.473410">
        <ele>1151.373</ele>
        <time>2018-12-27T21:32:39Z</time>
      </trkpt>
      <trkpt lat="35.155330" lon="-118.473180">
        <ele>1152.223</ele>
        <time>2018-12-27T21:32:59Z</time>
      </trkpt>
      <trkpt lat="35.154280" lon="-118.472470">
        <ele>1162.657</ele>
        <time>2018-12-27T21:33:19Z</time>
      </trkpt>
      <trkpt lat="35.153270" lon="-118.471770">
        <ele>1166.331</ele>
        <time>2018-12-27T21:33:39Z</time>
      </trkpt>
      <trkpt lat="35.151420" lon="-118.470500">
        <ele>1171.990</ele>
        <time>2018-12-27T21:33:59Z</time>
      </trkpt>
      <trkpt lat="35.151090" lon="-118.470270">
        <ele>1170.965</ele>
        <time>2018-12-27T21:34:19Z</time>
      </trkpt>
      <trkpt lat="35.150790" lon="-118.470070">
        <ele>1171.625</ele>
        <time>2018-12-27T21:34:39Z</time>
      </trkpt>
      <trkpt lat="35.150600" lon="-118.469960">
        <ele>1171.726</ele>
        <time>2018-12-27T21:34:59Z</time>
      </trkpt>
      <trkpt lat="35.150430" lon="-118.469870">
        <ele>1172.508</ele>
        <time>2018-12-27T21:35:19Z</time>
      </trkpt>
      <trkpt lat="35.150270" lon="-118.469800">
        <ele>1172.908</ele>
        <time>2018-12-27T21:35:39Z</time>
      </trkpt>
      <trkpt lat="35.150040" lon="-118.469690">
        <ele>1174.035</ele>
        <time>2018-12-27T21:35:59Z</time>
      </trkpt>
      <trkpt lat="35.149830" lon="-118.469620">
        <ele>1175.253</ele>
        <time>2018-12-27T21:36:19Z</time>
      </trkpt>
      <trkpt lat="35.149660" lon="-118.469570">
        <ele>1176.398</ele>
        <time>2018-12-27T21:36:39Z</time>
      </trkpt>
      <trkpt lat="35.149530" lon="-118.469540">
        <ele>1177.098</ele>
        <time>2018-12-27T21:36:59Z</time>
      </trkpt>
      <trkpt lat="35.149370" lon="-118.469500">
        <ele>1177.542</ele>
        <time>2018-12-27T21:37:19Z</time>
      </trkpt>
      <trkpt lat="35.149180" lon="-118.469470">
        <ele>1179.036</ele>
        <time>2018-12-27T21:37:39Z</time>
      </trkpt>
      <trkpt lat="35.148960" lon="-118.469440">
        <ele>1180.675</ele>
        <time>2018-12-27T21:37:59Z</time>
      </trkpt>
      <trkpt lat="35.148780" lon="-118.469420">
        <ele>1180.420</ele>
        <time>2018-12-27T21:38:19Z</time>
      </trkpt>
      <trkpt lat="35.148610" lon="-118.469420">
        <ele>1181.854</ele>
        <time>2018-12-27T21:38:39Z</time>
      </trkpt>
      <trkpt lat="35.148320" lon="-118.469420">
        <ele>1183.656</ele>
        <time>2018-12-27T21:38:59Z</time>
      </trkpt>
      <trkpt lat="35.148090" lon="-118.469450">
        <ele>1183.811</ele>
        <time>2018-12-27T21:39:19Z</time>
      </trkpt>
      <trkpt lat="35.147820" lon="-118.469490">
        <ele>1183.908</ele>
        <time>2018-12-27T21:39:39Z</time>
      </trkpt>
      <trkpt lat="35.147570" lon="-118.469540">
        <ele>1184.638</ele>
        <time>2018-12-27T21:39:59Z</time>
      </trkpt>
      <trkpt lat="35.146960" lon="-118.469690">
        <ele>1185.926</ele>
        <time>2018-12-27T21:40:19Z</time>
      </trkpt>
      <trkpt lat="35.146550" lon="-118.469790">
        <ele>1186.641</ele>
        <time>2018-12-27T21:40:39Z</time>
      </trkpt>
      <trkpt lat="35.146150" lon="-118.469880">
        <ele>1187.811</ele>
        <time>2018-12-27T21:40:59Z</time>
      </trkpt>
      <trkpt lat="35.145890" lon="-118.469930">
        <ele>1188.495</ele>
        <time>2018-12-27T21:41:19Z</time>
      </trkpt>
      <trkpt lat="35.145630" lon="-118.469960">
        <ele>1189.349</ele>
        <time>2018-12-27T21:41:39Z</time>
      </trkpt>
      <trkpt lat="35.145310" lon="-118.469980">
        <ele>1192.498</ele>
        <time>2018-12-27T21:41:59Z</time>
      </trkpt>
      <trkpt lat="35.145010" lon="-118.469970">
        <ele>1196.933</ele>
        <time>2018-12-27T21:42:19Z</time>
      </trkpt>
      <trkpt lat="35.144720" lon="-118.469930">
        <ele>1199.471</ele>
        <time>2018-12-27T21:42:39Z</time>
      </trkpt>
      <trkpt lat="35.144460" lon="-118.469890">
        <ele>1200.741</ele>
        <time>2018-12-27T21:42:59Z</time>
      </trkpt>
      <trkpt lat="35.144210" lon="-118.469830">
        <ele>1202.215</ele>
        <time>2018-12-27T21:43:19Z</time>
      </trkpt>
      <trkpt lat="35.143960" lon="-118.469750">
        <ele>1203.908</ele>
        <time>2018-12-27T21:43:39Z</time>
      </trkpt>
      <trkpt lat="35.143840" lon="-118.469700">
        <ele>1204.890</ele>
        <time>2018-12-27T21:43:59Z</time>
      </trkpt>
      <trkpt lat="35.143590" lon="-118.469600">
        <ele>1205.878</ele>
        <time>2018-12-27T21:44:19Z</time>
      </trkpt>
      <trkpt lat="35.143330" lon="-118.469470">
        <ele>1206.063</ele>
        <time>2018-12-27T21:44:39Z</time>
      </trkpt>
      <trkpt lat="35.143090" lon="-118.469330">
        <ele>1205.813</ele>
        <time>2018-12-27T21:44:59Z</time>
      </trkpt>
      <trkpt lat="35.142860" lon="-118.469180">
        <ele>1205.757</ele>
        <time>2018-12-27T21:45:19Z</time>
      </trkpt>
      <trkpt lat="35.142600" lon="-118.468980">
        <ele>1205.711</ele>
        <time>2018-12-27T21:45:39Z</time>
      </trkpt>
      <trkpt lat="35.142410" lon="-118.468820">
        <ele>1206.050</ele>
        <time>2018-12-27T21:45:59Z</time>
      </trkpt>
      <trkpt lat="35.142270" lon="-118.468680">
        <ele>1206.555</ele>
        <time>2018-12-27T21:46:19Z</time>
      </trkpt>
      <trkpt lat="35.142080" lon="-118.468500">
        <ele>1207.813</ele>
        <time>2018-12-27T21:46:39Z</time>
      </trkpt>
      <trkpt lat="35.141930" lon="-118.468320">
        <ele>1208.543</ele>
        <time>2018-12-27T21:46:59Z</time>
      </trkpt>
      <trkpt lat="35.141800" lon="-118.468170">
        <ele>1209.007</ele>
        <time>2018-12-27T21:47:19Z</time>
      </trkpt>
      <trkpt lat="35.141640" lon="-118.467960">
        <ele>1208.408</ele>
        <time>2018-12-27T21:47:39Z</time>
      </trkpt>
      <trkpt lat="35.141520" lon="-118.467780">
        <ele>1207.724</ele>
        <time>2018-12-27T21:47:59Z</time>
      </trkpt>
      <trkpt lat="35.141390" lon="-118.467580">
        <ele>1206.752</ele>
        <time>2018-12-27T21:48:19Z</time>
      </trkpt>
      <trkpt lat="35.141200" lon="-118.467250">
        <ele>1205.217</ele>
        <time>2018-12-27T21:48:39Z</time>
      </trkpt>
      <trkpt lat="35.141130" lon="-118.467110">
        <ele>1204.797</ele>
        <time>2018-12-27T21:48:59Z</time>
      </trkpt>
      <trkpt lat="35.141040" lon="-118.466930">
        <ele>1204.311</ele>
        <time>2018-12-27T21:49:19Z</time>
      </trkpt>
      <trkpt lat="35.140960" lon="-118.466750">
        <ele>1203.815</ele>
        <time>2018-12-27T21:49:39Z</time>
      </trkpt>
      <trkpt lat="35.140860" lon="-118.466500">
        <ele>1203.154</ele>
        <time>2018-12-27T21:49:59Z</time>
      </trkpt>
      <trkpt lat="35.140770" lon="-118.466250">
        <ele>1202.599</ele>
        <time>2018-12-27T21:50:19Z</time>
      </trkpt>
      <trkpt lat="35.140690" lon="-118.465970">
        <ele>1202.251</ele>
        <time>2018-12-27T21:50:39Z</time>
      </trkpt>
      <trkpt lat="35.140590" lon="-118.465560">
        <ele>1203.101</ele>
        <time>2018-12-27T21:50:59Z</time>
      </trkpt>
      <trkpt lat="35.140530" lon="-118.465290">
        <ele>1203.711</ele>
        <time>2018-12-27T21:51:19Z</time>
      </trkpt>
      <trkpt lat="35.140450" lon="-118.464780">
        <ele>1204.408</ele>
        <time>2018-12-27T21:51:39Z</time>
      </trkpt>
      <trkpt lat="35.140350" lon="-118.464200">
        <ele>1204.328</ele>
        <time>2018-12-27T21:51:59Z</time>
      </trkpt>
      <trkpt lat="35.140250" lon="-118.463650">
        <ele>1204.476</ele>
        <time>2018-12-27T21:52:19Z</time>
      </trkpt>
      <trkpt lat="35.140170" lon="-118.463100">
        <ele>1204.611</ele>
        <time>2018-12-27T21:52:39Z</time>
      </trkpt>
      <trkpt lat="35.140130" lon="-118.462860">
        <ele>1204.331</ele>
        <time>2018-12-27T21:52:59Z</time>
      </trkpt>
      <trkpt lat="35.139980" lon="-118.461960">
        <ele>1202.985</ele>
        <time>2018-12-27T21:53:19Z</time>
      </trkpt>
      <trkpt lat="35.139920" lon="-118.461650">
        <ele>1202.449</ele>
        <time>2018-12-27T21:53:39Z</time>
      </trkpt>
      <trkpt lat="35.139870" lon="-118.461330">
        <ele>1202.258</ele>
        <time>2018-12-27T21:53:59Z</time>
      </trkpt>
      <trkpt lat="35.139820" lon="-118.461020">
        <ele>1202.743</ele>
        <time>2018-12-27T21:54:19Z</time>
      </trkpt>
      <trkpt lat="35.139780" lon="-118.460760">
        <ele>1202.952</ele>
        <time>2018-12-27T21:54:39Z</time>
      </trkpt>
      <trkpt lat="35.139750" lon="-118.460520">
        <ele>1203.353</ele>
        <time>2018-12-27T21:54:59Z</time>
      </trkpt>
      <trkpt lat="35.139720" lon="-118.460280">
        <ele>1203.408</ele>
        <time>2018-12-27T21:55:19Z</time>
      </trkpt>
      <trkpt lat="35.139700" lon="-118.460020">
        <ele>1203.508</ele>
        <time>2018-12-27T21:55:39Z</time>
      </trkpt>
      <trkpt lat="35.139680" lon="-118.459770">
        <ele>1203.428</ele>
        <time>2018-12-27T21:55:59Z</time>
      </trkpt>
      <trkpt lat="35.139660" lon="-118.459480">
        <ele>1203.086</ele>
        <time>2018-12-27T21:56:19Z</time>
      </trkpt>
      <trkpt lat="35.139650" lon="-118.459150">
        <ele>1203.081</ele>
        <time>2018-12-27T21:56:39Z</time>
      </trkpt>
      <trkpt lat="35.139640" lon="-118.458830">
        <ele>1202.241</ele>
        <time>2018-12-27T21:56:59Z</time>
      </trkpt>
      <trkpt lat="35.139630" lon="-118.457870">
        <ele>1200.375</ele>
        <time>2018-12-27T21:57:19Z</time>
      </trkpt>
      <trkpt lat="35.139630" lon="-118.455240">
        <ele>1199.649</ele>
        <time>2018-12-27T21:57:39Z</time>
      </trkpt>
      <trkpt lat="35.139630" lon="-118.450510">
        <ele>1201.528</ele>
        <time>2018-12-27T21:57:59Z</time>
      </trkpt>
      <trkpt lat="35.139620" lon="-118.446110">
        <ele>1205.393</ele>
        <time>2018-12-27T21:58:19Z</time>
      </trkpt>
      <trkpt lat="35.139620" lon="-118.445320">
        <ele>1205.927</ele>
        <time>2018-12-27T21:58:39Z</time>
      </trkpt>
      <trkpt lat="35.139620" lon="-118.444780">
        <ele>1206.368</ele>
        <time>2018-12-27T21:58:59Z</time>
      </trkpt>
      <trkpt lat="35.139620" lon="-118.442220">
        <ele>1208.514</ele>
        <time>2018-12-27T21:59:19Z</time>
      </trkpt>
      <trkpt lat="35.139620" lon="-118.441900">
        <ele>1208.708</ele>
        <time>2018-12-27T21:59:39Z</time>
      </trkpt>
      <trkpt lat="35.139610" lon="-118.440690">
        <ele>1209.265</ele>
        <time>2018-12-27T21:59:59Z</time>
      </trkpt>
      <trkpt lat="35.139620" lon="-118.439050">
        <ele>1211.133</ele>
        <time>2018-12-27T22:00:19Z</time>
      </trkpt>
      <trkpt lat="35.139610" lon="-118.436630">
        <ele>1212.678</ele>
        <time>2018-12-27T22:00:39Z</time>
      </trkpt>
      <trkpt lat="35.139610" lon="-118.436340">
        <ele>1212.688</ele>
        <time>2018-12-27T22:00:59Z</time>
      </trkpt>
      <trkpt lat="35.139600" lon="-118.436090">
        <ele>1212.652</ele>
        <time>2018-12-27T22:01:19Z</time>
      </trkpt>
      <trkpt lat="35.139590" lon="-118.435830">
        <ele>1212.686</ele>
        <time>2018-12-27T22:01:39Z</time>
      </trkpt>
      <trkpt lat="35.139560" lon="-118.435570">
        <ele>1212.655</ele>
        <time>2018-12-27T22:01:59Z</time>
      </trkpt>
      <trkpt lat="35.139540" lon="-118.435350">
        <ele>1212.590</ele>
        <time>2018-12-27T22:02:19Z</time>
      </trkpt>
      <trkpt lat="35.139470" lon="-118.434890">
        <ele>1212.493</ele>
        <time>2018-12-27T22:02:39Z</time>
      </trkpt>
      <trkpt lat="35.139390" lon="-118.434450">
        <ele>1212.465</ele>
        <time>2018-12-27T22:02:59Z</time>
      </trkpt>
      <trkpt lat="35.139300" lon="-118.434110">
        <ele>1212.521</ele>
        <time>2018-12-27T22:03:19Z</time>
      </trkpt>
      <trkpt lat="35.139180" lon="-118.433670">
        <ele>1212.708</ele>
        <time>2018-12-27T22:03:39Z</time>
      </trkpt>
      <trkpt lat="35.139090" lon="-118.433370">
        <ele>1212.852</ele>
        <time>2018-12-27T22:03:59Z</time>
      </trkpt>
      <trkpt lat="35.138980" lon="-118.433100">
        <ele>1212.970</ele>
        <time>2018-12-27T22:04:19Z</time>
      </trkpt>
      <trkpt lat="35.138910" lon="-118.432920">
        <ele>1213.055</ele>
        <time>2018-12-27T22:04:39Z</time>
      </trkpt>
      <trkpt lat="35.138700" lon="-118.432420">
        <ele>1213.345</ele>
        <time>2018-12-27T22:04:59Z</time>
      </trkpt>
      <trkpt lat="35.138370" lon="-118.431650">
        <ele>1213.699</ele>
        <time>2018-12-27T22:05:19Z</time>
      </trkpt>
      <trkpt lat="35.138130" lon="-118.431100">
        <ele>1213.973</ele>
        <time>2018-12-27T22:05:39Z</time>
      </trkpt>
      <trkpt lat="35.137850" lon="-118.430460">
        <ele>1214.342</ele>
        <time>2018-12-27T22:05:59Z</time>
      </trkpt>
      <trkpt lat="35.137630" lon="-118.429960">
        <ele>1215.357</ele>
        <time>2018-12-27T22:06:19Z</time>
      </trkpt>
      <trkpt lat="35.137270" lon="-118.429110">
        <ele>1217.065</ele>
        <time>2018-12-27T22:06:39Z</time>
      </trkpt>
      <trkpt lat="35.136930" lon="-118.428340">
        <ele>1218.168</ele>
        <time>2018-12-27T22:06:59Z</time>
      </trkpt>
      <trkpt lat="35.136470" lon="-118.427280">
        <ele>1218.714</ele>
        <time>2018-12-27T22:07:19Z</time>
      </trkpt>
      <trkpt lat="35.136110" lon="-118.426430">
        <ele>1219.608</ele>
        <time>2018-12-27T22:07:39Z</time>
      </trkpt>
      <trkpt lat="35.135670" lon="-118.425440">
        <ele>1221.269</ele>
        <time>2018-12-27T22:07:59Z</time>
      </trkpt>
      <trkpt lat="35.135000" lon="-118.423890">
        <ele>1223.567</ele>
        <time>2018-12-27T22:08:19Z</time>
      </trkpt>
      <trkpt lat="35.134450" lon="-118.422620">
        <ele>1224.412</ele>
        <time>2018-12-27T22:08:39Z</time>
      </trkpt>
      <trkpt lat="35.133900" lon="-118.421370">
        <ele>1225.262</ele>
        <time>2018-12-27T22:08:59Z</time>
      </trkpt>
      <trkpt lat="35.132850" lon="-118.418940">
        <ele>1229.046</ele>
        <time>2018-12-27T22:09:19Z</time>
      </trkpt>
      <trkpt lat="35.132550" lon="-118.418230">
        <ele>1229.240</ele>
        <time>2018-12-27T22:09:39Z</time>
      </trkpt>
      <trkpt lat="35.131810" lon="-118.416540">
        <ele>1230.359</ele>
        <time>2018-12-27T22:09:59Z</time>
      </trkpt>
      <trkpt lat="35.131570" lon="-118.415980">
        <ele>1230.614</ele>
        <time>2018-12-27T22:10:19Z</time>
      </trkpt>
      <trkpt lat="35.131250" lon="-118.415260">
        <ele>1231.322</ele>
        <time>2018-12-27T22:10:39Z</time>
      </trkpt>
      <trkpt lat="35.131020" lon="-118.414730">
        <ele>1231.962</ele>
        <time>2018-12-27T22:10:59Z</time>
      </trkpt>
      <trkpt lat="35.130860" lon="-118.414400">
        <ele>1232.708</ele>
        <time>2018-12-27T22:11:19Z</time>
      </trkpt>
      <trkpt lat="35.130720" lon="-118.414140">
        <ele>1234.108</ele>
        <time>2018-12-27T22:11:39Z</time>
      </trkpt>
      <trkpt lat="35.130550" lon="-118.413860">
        <ele>1234.615</ele>
        <time>2018-12-27T22:11:59Z</time>
      </trkpt>
      <trkpt lat="35.130390" lon="-118.413620">
        <ele>1235.533</ele>
        <time>2018-12-27T22:12:19Z</time>
      </trkpt>
      <trkpt lat="35.130220" lon="-118.413390">
        <ele>1236.058</ele>
        <time>2018-12-27T22:12:39Z</time>
      </trkpt>
      <trkpt lat="35.130070" lon="-118.413220">
        <ele>1236.378</ele>
        <time>2018-12-27T22:12:59Z</time>
      </trkpt>
      <trkpt lat="35.129960" lon="-118.413080">
        <ele>1236.682</ele>
        <time>2018-12-27T22:13:19Z</time>
      </trkpt>
      <trkpt lat="35.129790" lon="-118.412890">
        <ele>1237.076</ele>
        <time>2018-12-27T22:13:39Z</time>
      </trkpt>
      <trkpt lat="35.129570" lon="-118.412670">
        <ele>1237.425</ele>
        <time>2018-12-27T22:13:59Z</time>
      </trkpt>
      <trkpt lat="35.129300" lon="-118.412440">
        <ele>1237.770</ele>
        <time>2018-12-27T22:14:19Z</time>
      </trkpt>
      <trkpt lat="35.129020" lon="-118.412230">
        <ele>1238.013</ele>
        <time>2018-12-27T22:14:39Z</time>
      </trkpt>
      <trkpt lat="35.128790" lon="-118.412070">
        <ele>1238.143</ele>
        <time>2018-12-27T22:14:59Z</time>
      </trkpt>
      <trkpt lat="35.128590" lon="-118.411950">
        <ele>1237.707</ele>
        <time>2018-12-27T22:15:19Z</time>
      </trkpt>
      <trkpt lat="35.128420" lon="-118.411850">
        <ele>1237.208</ele>
        <time>2018-12-27T22:15:39Z</time>
      </trkpt>
      <trkpt lat="35.128330" lon="-118.411810">
        <ele>1237.024</ele>
        <time>2018-12-27T22:15:59Z</time>
      </trkpt>
      <trkpt lat="35.128060" lon="-118.411690">
        <ele>1235.662</ele>
        <time>2018-12-27T22:16:19Z</time>
      </trkpt>
      <trkpt lat="35.127880" lon="-118.411610">
        <ele>1234.457</ele>
        <time>2018-12-27T22:16:39Z</time>
      </trkpt>
      <trkpt lat="35.127450" lon="-118.411440">
        <ele>1231.177</ele>
        <time>2018-12-27T22:16:59Z</time>
      </trkpt>
      <trkpt lat="35.127210" lon="-118.411350">
        <ele>1229.851</ele>
        <time>2018-12-27T22:17:19Z</time>
      </trkpt>
      <trkpt lat="35.126990" lon="-118.411260">
        <ele>1229.385</ele>
        <time>2018-12-27T22:17:39Z</time>
      </trkpt>
      <trkpt lat="35.126830" lon="-118.411200">
        <ele>1229.354</ele>
        <time>2018-12-27T22:17:59Z</time>
      </trkpt>
      <trkpt lat="35.126700" lon="-118.411150">
        <ele>1229.469</ele>
        <time>2018-12-27T22:18:19Z</time>
      </trkpt>
      <trkpt lat="35.126440" lon="-118.411040">
        <ele>1229.792</ele>
        <time>2018-12-27T22:18:39Z</time>
      </trkpt>
      <trkpt lat="35.126200" lon="-118.410910">
        <ele>1230.073</ele>
        <time>2018-12-27T22:18:59Z</time>
      </trkpt>
      <trkpt lat="35.125980" lon="-118.410790">
        <ele>1230.320</ele>
        <time>2018-12-27T22:19:19Z</time>
      </trkpt>
      <trkpt lat="35.125700" lon="-118.410610">
        <ele>1230.808</ele>
        <time>2018-12-27T22:19:39Z</time>
      </trkpt>
      <trkpt lat="35.125560" lon="-118.410520">
        <ele>1231.012</ele>
        <time>2018-12-27T22:19:59Z</time>
      </trkpt>
      <trkpt lat="35.125360" lon="-118.410380">
        <ele>1231.250</ele>
        <time>2018-12-27T22:20:19Z</time>
      </trkpt>
      <trkpt lat="35.125260" lon="-118.410300">
        <ele>1231.455</ele>
        <time>2018-12-27T22:20:39Z</time>
      </trkpt>
      <trkpt lat="35.124990" lon="-118.410070">
        <ele>1231.735</ele>
        <time>2018-12-27T22:20:59Z</time>
      </trkpt>
      <trkpt lat="35.124740" lon="-118.409840">
        <ele>1232.199</ele>
        <time>2018-12-27T22:21:19Z</time>
      </trkpt>
      <trkpt lat="35.124420" lon="-118.409490">
        <ele>1232.513</ele>
        <time>2018-12-27T22:21:39Z</time>
      </trkpt>
      <trkpt lat="35.124120" lon="-118.409130">
        <ele>1232.832</ele>
        <time>2018-12-27T22:21:59Z</time>
      </trkpt>
      <trkpt lat="35.124000" lon="-118.408970">
        <ele>1232.977</ele>
        <time>2018-12-27T22:22:19Z</time>
      </trkpt>
      <trkpt lat="35.123900" lon="-118.408850">
        <ele>1232.973</ele>
        <time>2018-12-27T22:22:39Z</time>
      </trkpt>
      <trkpt lat="35.123780" lon="-118.408660">
        <ele>1233.085</ele>
        <time>2018-12-27T22:22:59Z</time>
      </trkpt>
      <trkpt lat="35.123640" lon="-118.408440">
        <ele>1233.113</ele>
        <time>2018-12-27T22:23:19Z</time>
      </trkpt>
      <trkpt lat="35.123570" lon="-118.408330">
        <ele>1233.108</ele>
        <time>2018-12-27T22:23:39Z</time>
      </trkpt>
      <trkpt lat="35.123490" lon="-118.408180">
        <ele>1233.120</ele>
        <time>2018-12-27T22:23:59Z</time>
      </trkpt>
      <trkpt lat="35.123270" lon="-118.407770">
        <ele>1233.168</ele>
        <time>2018-12-27T22:24:19Z</time>
      </trkpt>
      <trkpt lat="35.123200" lon="-118.407630">
        <ele>1233.293</ele>
        <time>2018-12-27T22:24:39Z</time>
      </trkpt>
      <trkpt lat="35.123160" lon="-118.407530">
        <ele>1233.223</ele>
        <time>2018-12-27T22:24:59Z</time>
      </trkpt>
      <trkpt lat="35.123060" lon="-118.407310">
        <ele>1233.377</ele>
        <time>2018-12-27T22:25:19Z</time>
      </trkpt>
      <trkpt lat="35.122990" lon="-118.407150">
        <ele>1233.321</ele>
        <time>2018-12-27T22:25:39Z</time>
      </trkpt>
      <trkpt lat="35.122990" lon="-118.407130">
        <ele>1233.330</ele>
        <time>2018-12-27T22:25:59Z</time>
      </trkpt>
      <trkpt lat="35.122950" lon="-118.407030">
        <ele>1233.475</ele>
        <time>2018-12-27T22:26:19Z</time>
      </trkpt>
      <trkpt lat="35.122890" lon="-118.406880">
        <ele>1233.458</ele>
        <time>2018-12-27T22:26:39Z</time>
      </trkpt>
      <trkpt lat="35.122830" lon="-118.406690">
        <ele>1233.452</ele>
        <time>2018-12-27T22:26:59Z</time>
      </trkpt>
      <trkpt lat="35.122750" lon="-118.406430">
        <ele>1233.517</ele>
        <time>2018-12-27T22:27:19Z</time>
      </trkpt>
      <trkpt lat="35.122660" lon="-118.406120">
        <ele>1233.608</ele>
        <time>2018-12-27T22:27:39Z</time>
      </trkpt>
      <trkpt lat="35.122620" lon="-118.405970">
        <ele>1233.678</ele>
        <time>2018-12-27T22:27:59Z</time>
      </trkpt>
      <trkpt lat="35.122460" lon="-118.405370">
        <ele>1233.796</ele>
        <time>2018-12-27T22:28:19Z</time>
      </trkpt>
      <trkpt lat="35.122260" lon="-118.404620">
        <ele>1233.791</ele>
        <time>2018-12-27T22:28:39Z</time>
      </trkpt>
      <trkpt lat="35.121800" lon="-118.402870">
        <ele>1233.131</ele>
        <time>2018-12-27T22:28:59Z</time>
      </trkpt>
      <trkpt lat="35.121340" lon="-118.401130">
        <ele>1231.845</ele>
        <time>2018-12-27T22:29:19Z</time>
      </trkpt>
      <trkpt lat="35.120800" lon="-118.399130">
        <ele>1230.559</ele>
        <time>2018-12-27T22:29:39Z</time>
      </trkpt>
      <trkpt lat="35.120690" lon="-118.398680">
        <ele>1230.358</ele>
        <time>2018-12-27T22:29:59Z</time>
      </trkpt>
      <trkpt lat="35.120480" lon="-118.397900">
        <ele>1230.013</ele>
        <time>2018-12-27T22:30:19Z</time>
      </trkpt>
      <trkpt lat="35.120380" lon="-118.397520">
        <ele>1230.092</ele>
        <time>2018-12-27T22:30:39Z</time>
      </trkpt>
      <trkpt lat="35.120200" lon="-118.396850">
        <ele>1229.773</ele>
        <time>2018-12-27T22:30:59Z</time>
      </trkpt>
      <trkpt lat="35.120120" lon="-118.396550">
        <ele>1229.720</ele>
        <time>2018-12-27T22:31:19Z</time>
      </trkpt>
      <trkpt lat="35.120060" lon="-118.396310">
        <ele>1229.608</ele>
        <time>2018-12-27T22:31:39Z</time>
      </trkpt>
      <trkpt lat="35.119950" lon="-118.395900">
        <ele>1229.552</ele>
        <time>2018-12-27T22:31:59Z</time>
      </trkpt>
      <trkpt lat="35.119820" lon="-118.395420">
        <ele>1229.470</ele>
        <time>2018-12-27T22:32:19Z</time>
      </trkpt>
      <trkpt lat="35.119580" lon="-118.394500">
        <ele>1229.055</ele>
        <time>2018-12-27T22:32:39Z</time>
      </trkpt>
      <trkpt lat="35.119330" lon="-118.393590">
        <ele>1228.515</ele>
        <time>2018-12-27T22:32:59Z</time>
      </trkpt>
      <trkpt lat="35.118970" lon="-118.392230">
        <ele>1227.569</ele>
        <time>2018-12-27T22:33:19Z</time>
      </trkpt>
      <trkpt lat="35.118700" lon="-118.391180">
        <ele>1226.343</ele>
        <time>2018-12-27T22:33:39Z</time>
      </trkpt>
      <trkpt lat="35.118340" lon="-118.389850">
        <ele>1224.932</ele>
        <time>2018-12-27T22:33:59Z</time>
      </trkpt>
      <trkpt lat="35.117860" lon="-118.388030">
        <ele>1222.927</ele>
        <time>2018-12-27T22:34:19Z</time>
      </trkpt>
      <trkpt lat="35.117640" lon="-118.387210">
        <ele>1221.988</ele>
        <time>2018-12-27T22:34:39Z</time>
      </trkpt>
      <trkpt lat="35.117360" lon="-118.386150">
        <ele>1220.624</ele>
        <time>2018-12-27T22:34:59Z</time>
      </trkpt>
      <trkpt lat="35.117230" lon="-118.385670">
        <ele>1220.026</ele>
        <time>2018-12-27T22:35:19Z</time>
      </trkpt>
      <trkpt lat="35.116990" lon="-118.384760">
        <ele>1219.008</ele>
        <time>2018-12-27T22:35:39Z</time>
      </trkpt>
      <trkpt lat="35.116470" lon="-118.382770">
        <ele>1216.421</ele>
        <time>2018-12-27T22:35:59Z</time>
      </trkpt>
      <trkpt lat="35.116270" lon="-118.382030">
        <ele>1215.559</ele>
        <time>2018-12-27T22:36:19Z</time>
      </trkpt>
      <trkpt lat="35.116090" lon="-118.381370">
        <ele>1214.634</ele>
        <time>2018-12-27T22:36:39Z</time>
      </trkpt>
      <trkpt lat="35.115790" lon="-118.380220">
        <ele>1213.024</ele>
        <time>2018-12-27T22:36:59Z</time>
      </trkpt>
      <trkpt lat="35.115490" lon="-118.379100">
        <ele>1211.518</ele>
        <time>2018-12-27T22:37:19Z</time>
      </trkpt>
      <trkpt lat="35.115420" lon="-118.378810">
        <ele>1211.242</ele>
        <time>2018-12-27T22:37:39Z</time>
      </trkpt>
      <trkpt lat="35.115390" lon="-118.378660">
        <ele>1211.131</ele>
        <time>2018-12-27T22:37:59Z</time>
      </trkpt>
      <trkpt lat="35.115360" lon="-118.378500">
        <ele>1210.936</ele>
        <time>2018-12-27T22:38:19Z</time>
      </trkpt>
      <trkpt lat="35.115310" lon="-118.378200">
        <ele>1210.654</ele>
        <time>2018-12-27T22:38:39Z</time>
      </trkpt>
      <trkpt lat="35.115260" lon="-118.377830">
        <ele>1210.256</ele>
        <time>2018-12-27T22:38:59Z</time>
      </trkpt>
      <trkpt lat="35.115220" lon="-118.377540">
        <ele>1209.811</ele>
        <time>2018-12-27T22:39:19Z</time>
      </trkpt>
      <trkpt lat="35.115200" lon="-118.377360">
        <ele>1209.608</ele>
        <time>2018-12-27T22:39:39Z</time>
      </trkpt>
      <trkpt lat="35.115180" lon="-118.377050">
        <ele>1209.148</ele>
        <time>2018-12-27T22:39:59Z</time>
      </trkpt>
      <trkpt lat="35.115160" lon="-118.376420">
        <ele>1208.176</ele>
        <time>2018-12-27T22:40:19Z</time>
      </trkpt>
      <trkpt lat="35.115130" lon="-118.375500">
        <ele>1207.621</ele>
        <time>2018-12-27T22:40:39Z</time>
      </trkpt>
      <trkpt lat="35.115100" lon="-118.374690">
        <ele>1206.641</ele>
        <time>2018-12-27T22:40:59Z</time>
      </trkpt>
      <trkpt lat="35.115070" lon="-118.373870">
        <ele>1205.845</ele>
        <time>2018-12-27T22:41:19Z</time>
      </trkpt>
      <trkpt lat="35.115050" lon="-118.373070">
        <ele>1205.259</ele>
        <time>2018-12-27T22:41:39Z</time>
      </trkpt>
      <trkpt lat="35.115020" lon="-118.372120">
        <ele>1204.338</ele>
        <time>2018-12-27T22:41:59Z</time>
      </trkpt>
      <trkpt lat="35.114990" lon="-118.371150">
        <ele>1202.993</ele>
        <time>2018-12-27T22:42:19Z</time>
      </trkpt>
      <trkpt lat="35.114970" lon="-118.370540">
        <ele>1202.179</ele>
        <time>2018-12-27T22:42:39Z</time>
      </trkpt>
      <trkpt lat="35.114940" lon="-118.369720">
        <ele>1201.705</ele>
        <time>2018-12-27T22:42:59Z</time>
      </trkpt>
      <trkpt lat="35.114920" lon="-118.368920">
        <ele>1201.325</ele>
        <time>2018-12-27T22:43:19Z</time>
      </trkpt>
      <trkpt lat="35.114900" lon="-118.368450">
        <ele>1201.008</ele>
        <time>2018-12-27T22:43:39Z</time>
      </trkpt>
      <trkpt lat="35.114880" lon="-118.367970">
        <ele>1200.660</ele>
        <time>2018-12-27T22:43:59Z</time>
      </trkpt>
      <trkpt lat="35.114860" lon="-118.367620">
        <ele>1200.398</ele>
        <time>2018-12-27T22:44:19Z</time>
      </trkpt>
      <trkpt lat="35.114820" lon="-118.367330">
        <ele>1200.143</ele>
        <time>2018-12-27T22:44:39Z</time>
      </trkpt>
      <trkpt lat="35.114800" lon="-118.367170">
        <ele>1200.183</ele>
        <time>2018-12-27T22:44:59Z</time>
      </trkpt>
      <trkpt lat="35.114780" lon="-118.367000">
        <ele>1200.047</ele>
        <time>2018-12-27T22:45:19Z</time>
      </trkpt>
      <trkpt lat="35.114730" lon="-118.366700">
        <ele>1199.711</ele>
        <time>2018-12-27T22:45:39Z</time>
      </trkpt>
      <trkpt lat="35.114650" lon="-118.366330">
        <ele>1199.520</ele>
        <time>2018-12-27T22:45:59Z</time>
      </trkpt>
      <trkpt lat="35.114600" lon="-118.366110">
        <ele>1199.345</ele>
        <time>2018-12-27T22:46:19Z</time>
      </trkpt>
      <trkpt lat="35.114490" lon="-118.365700">
        <ele>1199.056</ele>
        <time>2018-12-27T22:46:39Z</time>
      </trkpt>
      <trkpt lat="35.114170" lon="-118.364620">
        <ele>1198.159</ele>
        <time>2018-12-27T22:46:59Z</time>
      </trkpt>
      <trkpt lat="35.113920" lon="-118.363720">
        <ele>1197.214</ele>
        <time>2018-12-27T22:47:19Z</time>
      </trkpt>
      <trkpt lat="35.113290" lon="-118.361530">
        <ele>1195.508</ele>
        <time>2018-12-27T22:47:39Z</time>
      </trkpt>
      <trkpt lat="35.112830" lon="-118.359920">
        <ele>1194.338</ele>
        <time>2018-12-27T22:47:59Z</time>
      </trkpt>
      <trkpt lat="35.112210" lon="-118.357760">
        <ele>1194.166</ele>
        <time>2018-12-27T22:48:19Z</time>
      </trkpt>
      <trkpt lat="35.112040" lon="-118.357170">
        <ele>1193.941</ele>
        <time>2018-12-27T22:48:39Z</time>
      </trkpt>
      <trkpt lat="35.111830" lon="-118.356420">
        <ele>1193.891</ele>
        <time>2018-12-27T22:48:59Z</time>
      </trkpt>
      <trkpt lat="35.111650" lon="-118.355810">
        <ele>1193.415</ele>
        <time>2018-12-27T22:49:19Z</time>
      </trkpt>
      <trkpt lat="35.111340" lon="-118.354720">
        <ele>1193.359</ele>
        <time>2018-12-27T22:49:39Z</time>
      </trkpt>
      <trkpt lat="35.111090" lon="-118.353830">
        <ele>1193.828</ele>
        <time>2018-12-27T22:49:59Z</time>
      </trkpt>
      <trkpt lat="35.110880" lon="-118.353080">
        <ele>1193.833</ele>
        <time>2018-12-27T22:50:19Z</time>
      </trkpt>
      <trkpt lat="35.110830" lon="-118.352900">
        <ele>1193.855</ele>
        <time>2018-12-27T22:50:39Z</time>
      </trkpt>
      <trkpt lat="35.110760" lon="-118.352610">
        <ele>1194.307</ele>
        <time>2018-12-27T22:50:59Z</time>
      </trkpt>
      <trkpt lat="35.110690" lon="-118.352290">
        <ele>1194.717</ele>
        <time>2018-12-27T22:51:19Z</time>
      </trkpt>
      <trkpt lat="35.110630" lon="-118.351990">
        <ele>1195.008</ele>
        <time>2018-12-27T22:51:39Z</time>
      </trkpt>
      <trkpt lat="35.110550" lon="-118.351540">
        <ele>1195.548</ele>
        <time>2018-12-27T22:51:59Z</time>
      </trkpt>
      <trkpt lat="35.110490" lon="-118.351220">
        <ele>1195.776</ele>
        <time>2018-12-27T22:52:19Z</time>
      </trkpt>
      <trkpt lat="35.110440" lon="-118.350880">
        <ele>1195.881</ele>
        <time>2018-12-27T22:52:39Z</time>
      </trkpt>
      <trkpt lat="35.110410" lon="-118.350590">
        <ele>1195.921</ele>
        <time>2018-12-27T22:52:59Z</time>
      </trkpt>
      <trkpt lat="35.110370" lon="-118.350270">
        <ele>1196.295</ele>
        <time>2018-12-27T22:53:19Z</time>
      </trkpt>
      <trkpt lat="35.110340" lon="-118.349940">
        <ele>1196.429</ele>
        <time>2018-12-27T22:53:39Z</time>
      </trkpt>
      <trkpt lat="35.110310" lon="-118.349610">
        <ele>1196.828</ele>
        <time>2018-12-27T22:53:59Z</time>
      </trkpt>
      <trkpt lat="35.110290" lon="-118.349310">
        <ele>1197.233</ele>
        <time>2018-12-27T22:54:19Z</time>
      </trkpt>
      <trkpt lat="35.110270" lon="-118.349090">
        <ele>1197.637</ele>
        <time>2018-12-27T22:54:39Z</time>
      </trkpt>
      <trkpt lat="35.110260" lon="-118.348670">
        <ele>1197.249</ele>
        <time>2018-12-27T22:54:59Z</time>
      </trkpt>
      <trkpt lat="35.110250" lon="-118.348370">
        <ele>1195.913</ele>
        <time>2018-12-27T22:55:19Z</time>
      </trkpt>
      <trkpt lat="35.110250" lon="-118.347740">
        <ele>1196.308</ele>
        <time>2018-12-27T22:55:39Z</time>
      </trkpt>
      <trkpt lat="35.110250" lon="-118.346280">
        <ele>1197.066</ele>
        <time>2018-12-27T22:55:59Z</time>
      </trkpt>
      <trkpt lat="35.110250" lon="-118.345160">
        <ele>1195.874</ele>
        <time>2018-12-27T22:56:19Z</time>
      </trkpt>
      <trkpt lat="35.110240" lon="-118.343340">
        <ele>1194.379</ele>
        <time>2018-12-27T22:56:39Z</time>
      </trkpt>
      <trkpt lat="35.110240" lon="-118.341650">
        <ele>1192.369</ele>
        <time>2018-12-27T22:56:59Z</time>
      </trkpt>
      <trkpt lat="35.110240" lon="-118.340420">
        <ele>1191.763</ele>
        <time>2018-12-27T22:57:19Z</time>
      </trkpt>
      <trkpt lat="35.110230" lon="-118.337480">
        <ele>1198.137</ele>
        <time>2018-12-27T22:57:39Z</time>
      </trkpt>
      <trkpt lat="35.110240" lon="-118.335370">
        <ele>1194.296</ele>
        <time>2018-12-27T22:57:59Z</time>
      </trkpt>
      <trkpt lat="35.110230" lon="-118.333860">
        <ele>1200.851</ele>
        <time>2018-12-27T22:58:19Z</time>
      </trkpt>
      <trkpt lat="35.110220" lon="-118.333420">
        <ele>1206.591</ele>
        <time>2018-12-27T22:58:39Z</time>
      </trkpt>
      <trkpt lat="35.110220" lon="-118.332790">
        <ele>1204.181</ele>
        <time>2018-12-27T22:58:59Z</time>
      </trkpt>
      <trkpt lat="35.110220" lon="-118.332290">
        <ele>1207.319</ele>
        <time>2018-12-27T22:59:19Z</time>
      </trkpt>
      <trkpt lat="35.110220" lon="-118.331030">
        <ele>1206.208</ele>
        <time>2018-12-27T22:59:39Z</time>
      </trkpt>
      <trkpt lat="35.110240" lon="-118.329520">
        <ele>1198.072</ele>
        <time>2018-12-27T22:59:59Z</time>
      </trkpt>
      <trkpt lat="35.110240" lon="-118.328840">
        <ele>1195.560</ele>
        <time>2018-12-27T23:00:19Z</time>
      </trkpt>
      <trkpt lat="35.110240" lon="-118.327760">
        <ele>1195.735</ele>
        <time>2018-12-27T23:00:39Z</time>
      </trkpt>
      <trkpt lat="35.110240" lon="-118.327020">
        <ele>1195.755</ele>
        <time>2018-12-27T23:00:59Z</time>
      </trkpt>
      <trkpt lat="35.110240" lon="-118.326880">
        <ele>1195.749</ele>
        <time>2018-12-27T23:01:19Z</time>
      </trkpt>
      <trkpt lat="35.110240" lon="-118.326800">
        <ele>1195.743</ele>
        <time>2018-12-27T23:01:39Z</time>
      </trkpt>
      <trkpt lat="35.110240" lon="-118.326720">
        <ele>1195.772</ele>
        <time>2018-12-27T23:01:59Z</time>
      </trkpt>
      <trkpt lat="35.110240" lon="-118.326210">
        <ele>1195.857</ele>
        <time>2018-12-27T23:02:19Z</time>
      </trkpt>
      <trkpt lat="35.110230" lon="-118.325800">
        <ele>1196.077</ele>
        <time>2018-12-27T23:02:39Z</time>
      </trkpt>
      <trkpt lat="35.110230" lon="-118.324880">
        <ele>1196.761</ele>
        <time>2018-12-27T23:02:59Z</time>
      </trkpt>
      <trkpt lat="35.110220" lon="-118.324500">
        <ele>1197.027</ele>
        <time>2018-12-27T23:03:19Z</time>
      </trkpt>
      <trkpt lat="35.110200" lon="-118.324180">
        <ele>1197.108</ele>
        <time>2018-12-27T23:03:39Z</time>
      </trkpt>
      <trkpt lat="35.110160" lon="-118.323830">
        <ele>1197.040</ele>
        <time>2018-12-27T23:03:59Z</time>
      </trkpt>
      <trkpt lat="35.110120" lon="-118.323480">
        <ele>1196.738</ele>
        <time>2018-12-27T23:04:19Z</time>
      </trkpt>
      <trkpt lat="35.110040" lon="-118.323070">
        <ele>1196.963</ele>
        <time>2018-12-27T23:04:39Z</time>
      </trkpt>
      <trkpt lat="35.109980" lon="-118.322790">
        <ele>1196.693</ele>
        <time>2018-12-27T23:04:59Z</time>
      </trkpt>
      <trkpt lat="35.109920" lon="-118.322570">
        <ele>1196.417</ele>
        <time>2018-12-27T23:05:19Z</time>
      </trkpt>
      <trkpt lat="35.109850" lon="-118.322320">
        <ele>1196.411</ele>
        <time>2018-12-27T23:05:39Z</time>
      </trkpt>
      <trkpt lat="35.109730" lon="-118.321960">
        <ele>1196.250</ele>
        <time>2018-12-27T23:05:59Z</time>
      </trkpt>
      <trkpt lat="35.109650" lon="-118.321710">
        <ele>1196.155</ele>
        <time>2018-12-27T23:06:19Z</time>
      </trkpt>
      <trkpt lat="35.109560" lon="-118.321500">
        <ele>1196.152</ele>
        <time>2018-12-27T23:06:39Z</time>
      </trkpt>
      <trkpt lat="35.109440" lon="-118.321220">
        <ele>1195.953</ele>
        <time>2018-12-27T23:06:59Z</time>
      </trkpt>
      <trkpt lat="35.109290" lon="-118.320910">
        <ele>1195.608</ele>
        <time>2018-12-27T23:07:19Z</time>
      </trkpt>
      <trkpt lat="35.109090" lon="-118.320540">
        <ele>1195.208</ele>
        <time>2018-12-27T23:07:39Z</time>
      </trkpt>
      <trkpt lat="35.108900" lon="-118.320240">
        <ele>1194.668</ele>
        <time>2018-12-27T23:07:59Z</time>
      </trkpt>
      <trkpt lat="35.108690" lon="-118.319910">
        <ele>1194.096</ele>
        <time>2018-12-27T23:08:19Z</time>
      </trkpt>
      <trkpt lat="35.108370" lon="-118.319440">
        <ele>1193.391</ele>
        <time>2018-12-27T23:08:39Z</time>
      </trkpt>
      <trkpt lat="35.108350" lon="-118.319420">
        <ele>1193.331</ele>
        <time>2018-12-27T23:08:59Z</time>
      </trkpt>
      <trkpt lat="35.108050" lon="-118.318970">
        <ele>1192.865</ele>
        <time>2018-12-27T23:09:19Z</time>
      </trkpt>
      <trkpt lat="35.107910" lon="-118.318770">
        <ele>1192.649</ele>
        <time>2018-12-27T23:09:39Z</time>
      </trkpt>
      <trkpt lat="35.107460" lon="-118.318100">
        <ele>1191.738</ele>
        <time>2018-12-27T23:09:59Z</time>
      </trkpt>
      <trkpt lat="35.106290" lon="-118.316370">
        <ele>1189.723</ele>
        <time>2018-12-27T23:10:19Z</time>
      </trkpt>
      <trkpt lat="35.105300" lon="-118.314920">
        <ele>1189.275</ele>
        <time>2018-12-27T23:10:39Z</time>
      </trkpt>
      <trkpt lat="35.104460" lon="-118.313670">
        <ele>1188.128</ele>
        <time>2018-12-27T23:10:59Z</time>
      </trkpt>
      <trkpt lat="35.103670" lon="-118.312500">
        <ele>1187.820</ele>
        <time>2018-12-27T23:11:19Z</time>
      </trkpt>
      <trkpt lat="35.103380" lon="-118.312070">
        <ele>1186.408</ele>
        <time>2018-12-27T23:11:39Z</time>
      </trkpt>
      <trkpt lat="35.103200" lon="-118.311820">
        <ele>1186.090</ele>
        <time>2018-12-27T23:11:59Z</time>
      </trkpt>
      <trkpt lat="35.103030" lon="-118.311560">
        <ele>1186.048</ele>
        <time>2018-12-27T23:12:19Z</time>
      </trkpt>
      <trkpt lat="35.102920" lon="-118.311410">
        <ele>1186.083</ele>
        <time>2018-12-27T23:12:39Z</time>
      </trkpt>
      <trkpt lat="35.102740" lon="-118.311140">
        <ele>1185.963</ele>
        <time>2018-12-27T23:12:59Z</time>
      </trkpt>
      <trkpt lat="35.102430" lon="-118.310710">
        <ele>1184.467</ele>
        <time>2018-12-27T23:13:19Z</time>
      </trkpt>
      <trkpt lat="35.102210" lon="-118.310450">
        <ele>1183.651</ele>
        <time>2018-12-27T23:13:39Z</time>
      </trkpt>
      <trkpt lat="35.102050" lon="-118.310270">
        <ele>1183.260</ele>
        <time>2018-12-27T23:13:59Z</time>
      </trkpt>
      <trkpt lat="35.101860" lon="-118.310070">
        <ele>1182.035</ele>
        <time>2018-12-27T23:14:19Z</time>
      </trkpt>
      <trkpt lat="35.101640" lon="-118.309860">
        <ele>1180.691</ele>
        <time>2018-12-27T23:14:39Z</time>
      </trkpt>
      <trkpt lat="35.101540" lon="-118.309780">
        <ele>1180.381</ele>
        <time>2018-12-27T23:14:59Z</time>
      </trkpt>
      <trkpt lat="35.101440" lon="-118.309690">
        <ele>1179.919</ele>
        <time>2018-12-27T23:15:19Z</time>
      </trkpt>
      <trkpt lat="35.101200" lon="-118.309510">
        <ele>1179.008</ele>
        <time>2018-12-27T23:15:39Z</time>
      </trkpt>
      <trkpt lat="35.100930" lon="-118.309320">
        <ele>1178.122</ele>
        <time>2018-12-27T23:15:59Z</time>
      </trkpt>
      <trkpt lat="35.099900" lon="-118.308620">
        <ele>1175.650</ele>
        <time>2018-12-27T23:16:19Z</time>
      </trkpt>
      <trkpt lat="35.099380" lon="-118.308280">
        <ele>1174.975</ele>
        <time>2018-12-27T23:16:39Z</time>
      </trkpt>
      <trkpt lat="35.099130" lon="-118.308070">
        <ele>1174.335</ele>
        <time>2018-12-27T23:16:59Z</time>
      </trkpt>
      <trkpt lat="35.098940" lon="-118.307910">
        <ele>1174.089</ele>
        <time>2018-12-27T23:17:19Z</time>
      </trkpt>
      <trkpt lat="35.098720" lon="-118.307700">
        <ele>1175.323</ele>
        <time>2018-12-27T23:17:39Z</time>
      </trkpt>
      <trkpt lat="35.098550" lon="-118.307510">
        <ele>1177.632</ele>
        <time>2018-12-27T23:17:59Z</time>
      </trkpt>
      <trkpt lat="35.098430" lon="-118.307370">
        <ele>1179.457</ele>
        <time>2018-12-27T23:18:19Z</time>
      </trkpt>
      <trkpt lat="35.098260" lon="-118.307150">
        <ele>1181.965</ele>
        <time>2018-12-27T23:18:39Z</time>
      </trkpt>
      <trkpt lat="35.098080" lon="-118.306900">
        <ele>1181.568</ele>
        <time>2018-12-27T23:18:59Z</time>
      </trkpt>
      <trkpt lat="35.098000" lon="-118.306760">
        <ele>1181.514</ele>
        <time>2018-12-27T23:19:19Z</time>
      </trkpt>
      <trkpt lat="35.097940" lon="-118.306660">
        <ele>1182.008</ele>
        <time>2018-12-27T23:19:39Z</time>
      </trkpt>
      <trkpt lat="35.097780" lon="-118.306380">
        <ele>1184.859</ele>
        <time>2018-12-27T23:19:59Z</time>
      </trkpt>
      <trkpt lat="35.097600" lon="-118.306030">
        <ele>1190.947</ele>
        <time>2018-12-27T23:20:19Z</time>
      </trkpt>
      <trkpt lat="35.097540" lon="-118.305880">
        <ele>1193.412</ele>
        <time>2018-12-27T23:20:39Z</time>
      </trkpt>
      <trkpt lat="35.097420" lon="-118.305570">
        <ele>1198.072</ele>
        <time>2018-12-27T23:20:59Z</time>
      </trkpt>
      <trkpt lat="35.097330" lon="-118.305290">
        <ele>1201.186</ele>
        <time>2018-12-27T23:21:19Z</time>
      </trkpt>
      <trkpt lat="35.097280" lon="-118.305130">
        <ele>1202.120</ele>
        <time>2018-12-27T23:21:39Z</time>
      </trkpt>
      <trkpt lat="35.097240" lon="-118.304970">
        <ele>1202.429</ele>
        <time>2018-12-27T23:21:59Z</time>
      </trkpt>
      <trkpt lat="35.097200" lon="-118.304820">
        <ele>1202.044</ele>
        <time>2018-12-27T23:22:19Z</time>
      </trkpt>
      <trkpt lat="35.097150" lon="-118.304560">
        <ele>1200.332</ele>
        <time>2018-12-27T23:22:39Z</time>
      </trkpt>
      <trkpt lat="35.097120" lon="-118.304410">
        <ele>1198.092</ele>
        <time>2018-12-27T23:22:59Z</time>
      </trkpt>
      <trkpt lat="35.097100" lon="-118.304260">
        <ele>1196.711</ele>
        <time>2018-12-27T23:23:19Z</time>
      </trkpt>
      <trkpt lat="35.097060" lon="-118.304010">
        <ele>1195.608</ele>
        <time>2018-12-27T23:23:39Z</time>
      </trkpt>
      <trkpt lat="35.097030" lon="-118.303690">
        <ele>1196.556</ele>
        <time>2018-12-27T23:23:59Z</time>
      </trkpt>
      <trkpt lat="35.097020" lon="-118.303330">
        <ele>1190.564</ele>
        <time>2018-12-27T23:24:19Z</time>
      </trkpt>
      <trkpt lat="35.097010" lon="-118.303170">
        <ele>1185.669</ele>
        <time>2018-12-27T23:24:39Z</time>
      </trkpt>
      <trkpt lat="35.097010" lon="-118.302970">
        <ele>1179.789</ele>
        <time>2018-12-27T23:24:59Z</time>
      </trkpt>
      <trkpt lat="35.097020" lon="-118.302680">
        <ele>1175.773</ele>
        <time>2018-12-27T23:25:19Z</time>
      </trkpt>
      <trkpt lat="35.097040" lon="-118.302430">
        <ele>1175.077</ele>
        <time>2018-12-27T23:25:39Z</time>
      </trkpt>
      <trkpt lat="35.097100" lon="-118.302010">
        <ele>1172.846</ele>
        <time>2018-12-27T23:25:59Z</time>
      </trkpt>
      <trkpt lat="35.097150" lon="-118.301710">
        <ele>1171.061</ele>
        <time>2018-12-27T23:26:19Z</time>
      </trkpt>
      <trkpt lat="35.097230" lon="-118.301380">
        <ele>1172.564</ele>
        <time>2018-12-27T23:26:39Z</time>
      </trkpt>
      <trkpt lat="35.097490" lon="-118.300310">
        <ele>1169.506</ele>
        <time>2018-12-27T23:26:59Z</time>
      </trkpt>
      <trkpt lat="35.097760" lon="-118.299270">
        <ele>1168.116</ele>
        <time>2018-12-27T23:27:19Z</time>
      </trkpt>
      <trkpt lat="35.098130" lon="-118.297760">
        <ele>1167.908</ele>
        <time>2018-12-27T23:27:39Z</time>
      </trkpt>
      <trkpt lat="35.098450" lon="-118.296490">
        <ele>1168.369</ele>
        <time>2018-12-27T23:27:59Z</time>
      </trkpt>
      <trkpt lat="35.098700" lon="-118.295460">
        <ele>1168.747</ele>
        <time>2018-12-27T23:28:19Z</time>
      </trkpt>
      <trkpt lat="35.098920" lon="-118.294570">
        <ele>1168.612</ele>
        <time>2018-12-27T23:28:39Z</time>
      </trkpt>
      <trkpt lat="35.099150" lon="-118.293640">
        <ele>1165.992</ele>
        <time>2018-12-27T23:28:59Z</time>
      </trkpt>
      <trkpt lat="35.099490" lon="-118.292260">
        <ele>1163.436</ele>
        <time>2018-12-27T23:29:19Z</time>
      </trkpt>
      <trkpt lat="35.099850" lon="-118.290810">
        <ele>1158.170</ele>
        <time>2018-12-27T23:29:39Z</time>
      </trkpt>
      <trkpt lat="35.100010" lon="-118.290150">
        <ele>1157.689</ele>
        <time>2018-12-27T23:29:59Z</time>
      </trkpt>
      <trkpt lat="35.100140" lon="-118.289610">
        <ele>1157.524</ele>
        <time>2018-12-27T23:30:19Z</time>
      </trkpt>
      <trkpt lat="35.100400" lon="-118.288560">
        <ele>1157.891</ele>
        <time>2018-12-27T23:30:39Z</time>
      </trkpt>
      <trkpt lat="35.100670" lon="-118.287440">
        <ele>1157.581</ele>
        <time>2018-12-27T23:30:59Z</time>
      </trkpt>
      <trkpt lat="35.100880" lon="-118.286540">
        <ele>1156.419</ele>
        <time>2018-12-27T23:31:19Z</time>
      </trkpt>
      <trkpt lat="35.101090" lon="-118.285630">
        <ele>1155.408</ele>
        <time>2018-12-27T23:31:39Z</time>
      </trkpt>
      <trkpt lat="35.101230" lon="-118.285000">
        <ele>1155.132</ele>
        <time>2018-12-27T23:31:59Z</time>
      </trkpt>
      <trkpt lat="35.101480" lon="-118.283930">
        <ele>1154.660</ele>
        <time>2018-12-27T23:32:19Z</time>
      </trkpt>
      <trkpt lat="35.101750" lon="-118.282860">
        <ele>1154.255</ele>
        <time>2018-12-27T23:32:39Z</time>
      </trkpt>
      <trkpt lat="35.102030" lon="-118.281710">
        <ele>1153.585</ele>
        <time>2018-12-27T23:32:59Z</time>
      </trkpt>
      <trkpt lat="35.102130" lon="-118.281310">
        <ele>1153.319</ele>
        <time>2018-12-27T23:33:19Z</time>
      </trkpt>
      <trkpt lat="35.103110" lon="-118.277350">
        <ele>1150.073</ele>
        <time>2018-12-27T23:33:39Z</time>
      </trkpt>
      <trkpt lat="35.103530" lon="-118.275640">
        <ele>1153.842</ele>
        <time>2018-12-27T23:33:59Z</time>
      </trkpt>
      <trkpt lat="35.103720" lon="-118.274840">
        <ele>1154.727</ele>
        <time>2018-12-27T23:34:19Z</time>
      </trkpt>
      <trkpt lat="35.103940" lon="-118.273940">
        <ele>1154.723</ele>
        <time>2018-12-27T23:34:39Z</time>
      </trkpt>
      <trkpt lat="35.104060" lon="-118.273460">
        <ele>1153.983</ele>
        <time>2018-12-27T23:34:59Z</time>
      </trkpt>
      <trkpt lat="35.104160" lon="-118.273000">
        <ele>1152.611</ele>
        <time>2018-12-27T23:35:19Z</time>
      </trkpt>
      <trkpt lat="35.104250" lon="-118.272550">
        <ele>1151.508</ele>
        <time>2018-12-27T23:35:39Z</time>
      </trkpt>
      <trkpt lat="35.104300" lon="-118.272300">
        <ele>1150.995</ele>
        <time>2018-12-27T23:35:59Z</time>
      </trkpt>
      <trkpt lat="35.104370" lon="-118.271950">
        <ele>1149.993</ele>
        <time>2018-12-27T23:36:19Z</time>
      </trkpt>
      <trkpt lat="35.104450" lon="-118.271500">
        <ele>1148.368</ele>
        <time>2018-12-27T23:36:39Z</time>
      </trkpt>
      <trkpt lat="35.104530" lon="-118.271000">
        <ele>1148.338</ele>
        <time>2018-12-27T23:36:59Z</time>
      </trkpt>
      <trkpt lat="35.104600" lon="-118.270540">
        <ele>1148.692</ele>
        <time>2018-12-27T23:37:19Z</time>
      </trkpt>
      <trkpt lat="35.104650" lon="-118.270250">
        <ele>1148.946</ele>
        <time>2018-12-27T23:37:39Z</time>
      </trkpt>
      <trkpt lat="35.104690" lon="-118.269930">
        <ele>1149.175</ele>
        <time>2018-12-27T23:37:59Z</time>
      </trkpt>
      <trkpt lat="35.104750" lon="-118.269420">
        <ele>1149.420</ele>
        <time>2018-12-27T23:38:19Z</time>
      </trkpt>
      <trkpt lat="35.104820" lon="-118.268820">
        <ele>1149.665</ele>
        <time>2018-12-27T23:38:39Z</time>
      </trkpt>
      <trkpt lat="35.104860" lon="-118.268330">
        <ele>1149.668</ele>
        <time>2018-12-27T23:38:59Z</time>
      </trkpt>
      <trkpt lat="35.104920" lon="-118.267700">
        <ele>1149.514</ele>
        <time>2018-12-27T23:39:19Z</time>
      </trkpt>
      <trkpt lat="35.104960" lon="-118.267150">
        <ele>1150.008</ele>
        <time>2018-12-27T23:39:39Z</time>
      </trkpt>
      <trkpt lat="35.104990" lon="-118.266590">
        <ele>1150.339</ele>
        <time>2018-12-27T23:39:59Z</time>
      </trkpt>
      <trkpt lat="35.105010" lon="-118.266060">
        <ele>1149.737</ele>
        <time>2018-12-27T23:40:19Z</time>
      </trkpt>
      <trkpt lat="35.105020" lon="-118.265680">
        <ele>1149.352</ele>
        <time>2018-12-27T23:40:39Z</time>
      </trkpt>
      <trkpt lat="35.105030" lon="-118.265120">
        <ele>1149.632</ele>
        <time>2018-12-27T23:40:59Z</time>
      </trkpt>
      <trkpt lat="35.105040" lon="-118.264470">
        <ele>1147.026</ele>
        <time>2018-12-27T23:41:19Z</time>
      </trkpt>
      <trkpt lat="35.105020" lon="-118.263720">
        <ele>1143.190</ele>
        <time>2018-12-27T23:41:39Z</time>
      </trkpt>
      <trkpt lat="35.105000" lon="-118.263060">
        <ele>1141.289</ele>
        <time>2018-12-27T23:41:59Z</time>
      </trkpt>
      <trkpt lat="35.104960" lon="-118.262090">
        <ele>1138.534</ele>
        <time>2018-12-27T23:42:19Z</time>
      </trkpt>
      <trkpt lat="35.104900" lon="-118.261170">
        <ele>1134.323</ele>
        <time>2018-12-27T23:42:39Z</time>
      </trkpt>
      <trkpt lat="35.104870" lon="-118.260460">
        <ele>1132.683</ele>
        <time>2018-12-27T23:42:59Z</time>
      </trkpt>
      <trkpt lat="35.104840" lon="-118.259970">
        <ele>1131.711</ele>
        <time>2018-12-27T23:43:19Z</time>
      </trkpt>
      <trkpt lat="35.104830" lon="-118.259620">
        <ele>1131.208</ele>
        <time>2018-12-27T23:43:39Z</time>
      </trkpt>
      <trkpt lat="35.104830" lon="-118.259320">
        <ele>1131.455</ele>
        <time>2018-12-27T23:43:59Z</time>
      </trkpt>
      <trkpt lat="35.104820" lon="-118.259040">
        <ele>1130.893</ele>
        <time>2018-12-27T23:44:19Z</time>
      </trkpt>
      <trkpt lat="35.104830" lon="-118.258630">
        <ele>1129.348</ele>
        <time>2018-12-27T23:44:39Z</time>
      </trkpt>
      <trkpt lat="35.104850" lon="-118.258010">
        <ele>1127.768</ele>
        <time>2018-12-27T23:44:59Z</time>
      </trkpt>
      <trkpt lat="35.104880" lon="-118.257600">
        <ele>1127.842</ele>
        <time>2018-12-27T23:45:19Z</time>
      </trkpt>
      <trkpt lat="35.104900" lon="-118.257280">
        <ele>1127.686</ele>
        <time>2018-12-27T23:45:39Z</time>
      </trkpt>
      <trkpt lat="35.104940" lon="-118.256790">
        <ele>1129.145</ele>
        <time>2018-12-27T23:45:59Z</time>
      </trkpt>
      <trkpt lat="35.105010" lon="-118.256190">
        <ele>1128.060</ele>
        <time>2018-12-27T23:46:19Z</time>
      </trkpt>
      <trkpt lat="35.105060" lon="-118.255860">
        <ele>1129.021</ele>
        <time>2018-12-27T23:46:39Z</time>
      </trkpt>
      <trkpt lat="35.105090" lon="-118.255640">
        <ele>1127.541</ele>
        <time>2018-12-27T23:46:59Z</time>
      </trkpt>
      <trkpt lat="35.105140" lon="-118.255360">
        <ele>1123.605</ele>
        <time>2018-12-27T23:47:19Z</time>
      </trkpt>
      <trkpt lat="35.105220" lon="-118.254900">
        <ele>1123.508</ele>
        <time>2018-12-27T23:47:39Z</time>
      </trkpt>
      <trkpt lat="35.105280" lon="-118.254590">
        <ele>1122.615</ele>
        <time>2018-12-27T23:47:59Z</time>
      </trkpt>
      <trkpt lat="35.105350" lon="-118.254270">
        <ele>1121.923</ele>
        <time>2018-12-27T23:48:19Z</time>
      </trkpt>
      <trkpt lat="35.105420" lon="-118.253970">
        <ele>1121.338</ele>
        <time>2018-12-27T23:48:39Z</time>
      </trkpt>
      <trkpt lat="35.105490" lon="-118.253660">
        <ele>1121.078</ele>
        <time>2018-12-27T23:48:59Z</time>
      </trkpt>
      <trkpt lat="35.105700" lon="-118.252900">
        <ele>1117.752</ele>
        <time>2018-12-27T23:49:19Z</time>
      </trkpt>
      <trkpt lat="35.106040" lon="-118.251680">
        <ele>1110.466</ele>
        <time>2018-12-27T23:49:39Z</time>
      </trkpt>
      <trkpt lat="35.106350" lon="-118.250610">
        <ele>1112.135</ele>
        <time>2018-12-27T23:49:59Z</time>
      </trkpt>
      <trkpt lat="35.106570" lon="-118.249860">
        <ele>1111.540</ele>
        <time>2018-12-27T23:50:19Z</time>
      </trkpt>
      <trkpt lat="35.106670" lon="-118.249550">
        <ele>1112.654</ele>
        <time>2018-12-27T23:50:39Z</time>
      </trkpt>
      <trkpt lat="35.106810" lon="-118.249120">
        <ele>1110.256</ele>
        <time>2018-12-27T23:50:59Z</time>
      </trkpt>
      <trkpt lat="35.106910" lon="-118.248830">
        <ele>1109.011</ele>
        <time>2018-12-27T23:51:19Z</time>
      </trkpt>
      <trkpt lat="35.107080" lon="-118.248390">
        <ele>1107.408</ele>
        <time>2018-12-27T23:51:39Z</time>
      </trkpt>
      <trkpt lat="35.107200" lon="-118.248080">
        <ele>1106.048</ele>
        <time>2018-12-27T23:51:59Z</time>
      </trkpt>
      <trkpt lat="35.107420" lon="-118.247580">
        <ele>1103.966</ele>
        <time>2018-12-27T23:52:19Z</time>
      </trkpt>
      <trkpt lat="35.107780" lon="-118.246800">
        <ele>1102.281</ele>
        <time>2018-12-27T23:52:39Z</time>
      </trkpt>
      <trkpt lat="35.107890" lon="-118.246550">
        <ele>1101.081</ele>
        <time>2018-12-27T23:52:59Z</time>
      </trkpt>
      <trkpt lat="35.108730" lon="-118.244730">
        <ele>1096.225</ele>
        <time>2018-12-27T23:53:19Z</time>
      </trkpt>
      <trkpt lat="35.109820" lon="-118.242370">
        <ele>1091.429</ele>
        <time>2018-12-27T23:53:39Z</time>
      </trkpt>
      <trkpt lat="35.110790" lon="-118.240270">
        <ele>1088.138</ele>
        <time>2018-12-27T23:53:59Z</time>
      </trkpt>
      <trkpt lat="35.110990" lon="-118.239850">
        <ele>1087.273</ele>
        <time>2018-12-27T23:54:19Z</time>
      </trkpt>
      <trkpt lat="35.112460" lon="-118.236650">
        <ele>1094.152</ele>
        <time>2018-12-27T23:54:39Z</time>
      </trkpt>
      <trkpt lat="35.113220" lon="-118.235000">
        <ele>1093.553</ele>
        <time>2018-12-27T23:54:59Z</time>
      </trkpt>
      <trkpt lat="35.113620" lon="-118.234150">
        <ele>1091.908</ele>
        <time>2018-12-27T23:55:19Z</time>
      </trkpt>
      <trkpt lat="35.114060" lon="-118.233200">
        <ele>1088.308</ele>
        <time>2018-12-27T23:55:39Z</time>
      </trkpt>
      <trkpt lat="35.114510" lon="-118.232200">
        <ele>1086.838</ele>
        <time>2018-12-27T23:55:59Z</time>
      </trkpt>
      <trkpt lat="35.114900" lon="-118.231350">
        <ele>1083.546</ele>
        <time>2018-12-27T23:56:19Z</time>
      </trkpt>
      <trkpt lat="35.115220" lon="-118.230650">
        <ele>1080.321</ele>
        <time>2018-12-27T23:56:39Z</time>
      </trkpt>
      <trkpt lat="35.115410" lon="-118.230230">
        <ele>1079.211</ele>
        <time>2018-12-27T23:56:59Z</time>
      </trkpt>
      <trkpt lat="35.115800" lon="-118.229390">
        <ele>1074.295</ele>
        <time>2018-12-27T23:57:19Z</time>
      </trkpt>
      <trkpt lat="35.116120" lon="-118.228690">
        <ele>1071.759</ele>
        <time>2018-12-27T23:57:39Z</time>
      </trkpt>
      <trkpt lat="35.116520" lon="-118.227840">
        <ele>1067.128</ele>
        <time>2018-12-27T23:57:59Z</time>
      </trkpt>
      <trkpt lat="35.116910" lon="-118.227000">
        <ele>1062.243</ele>
        <time>2018-12-27T23:58:19Z</time>
      </trkpt>
      <trkpt lat="35.117240" lon="-118.226230">
        <ele>1057.059</ele>
        <time>2018-12-27T23:58:39Z</time>
      </trkpt>
      <trkpt lat="35.117330" lon="-118.225970">
        <ele>1056.203</ele>
        <time>2018-12-27T23:58:59Z</time>
      </trkpt>
      <trkpt lat="35.117510" lon="-118.225450">
        <ele>1056.923</ele>
        <time>2018-12-27T23:59:19Z</time>
      </trkpt>
      <trkpt lat="35.117610" lon="-118.225110">
        <ele>1058.008</ele>
        <time>2018-12-27T23:59:39Z</time>
      </trkpt>
      <trkpt lat="35.117700" lon="-118.224770">
        <ele>1057.568</ele>
        <time>2018-12-27T23:59:59Z</time>
      </trkpt>
      <trkpt lat="35.117800" lon="-118.224390">
        <ele>1058.486</ele>
        <time>2018-12-28T00:00:19Z</time>
      </trkpt>
      <trkpt lat="35.117840" lon="-118.224180">
        <ele>1058.461</ele>
        <time>2018-12-28T00:00:39Z</time>
      </trkpt>
      <trkpt lat="35.117900" lon="-118.223920">
        <ele>1058.311</ele>
        <time>2018-12-28T00:00:59Z</time>
      </trkpt>
      <trkpt lat="35.117940" lon="-118.223670">
        <ele>1057.825</ele>
        <time>2018-12-28T00:01:19Z</time>
      </trkpt>
      <trkpt lat="35.117980" lon="-118.223430">
        <ele>1057.449</ele>
        <time>2018-12-28T00:01:39Z</time>
      </trkpt>
      <trkpt lat="35.118030" lon="-118.223120">
        <ele>1057.788</ele>
        <time>2018-12-28T00:01:59Z</time>
      </trkpt>
      <trkpt lat="35.118050" lon="-118.222920">
        <ele>1058.083</ele>
        <time>2018-12-28T00:02:19Z</time>
      </trkpt>
      <trkpt lat="35.118080" lon="-118.222700">
        <ele>1058.361</ele>
        <time>2018-12-28T00:02:39Z</time>
      </trkpt>
      <trkpt lat="35.118110" lon="-118.222290">
        <ele>1056.621</ele>
        <time>2018-12-28T00:02:59Z</time>
      </trkpt>
      <trkpt lat="35.118130" lon="-118.221990">
        <ele>1056.113</ele>
        <time>2018-12-28T00:03:19Z</time>
      </trkpt>
      <trkpt lat="35.118150" lon="-118.221720">
        <ele>1056.008</ele>
        <time>2018-12-28T00:03:39Z</time>
      </trkpt>
      <trkpt lat="35.118160" lon="-118.221470">
        <ele>1056.169</ele>
        <time>2018-12-28T00:03:59Z</time>
      </trkpt>
      <trkpt lat="35.118160" lon="-118.221350">
        <ele>1056.177</ele>
        <time>2018-12-28T00:04:19Z</time>
      </trkpt>
      <trkpt lat="35.118160" lon="-118.221210">
        <ele>1056.072</ele>
        <time>2018-12-28T00:04:39Z</time>
      </trkpt>
      <trkpt lat="35.118150" lon="-118.221040">
        <ele>1056.052</ele>
        <time>2018-12-28T00:04:59Z</time>
      </trkpt>
      <trkpt lat="35.118150" lon="-118.220720">
        <ele>1055.986</ele>
        <time>2018-12-28T00:05:19Z</time>
      </trkpt>
      <trkpt lat="35.118130" lon="-118.220400">
        <ele>1055.880</ele>
        <time>2018-12-28T00:05:39Z</time>
      </trkpt>
      <trkpt lat="35.118120" lon="-118.220250">
        <ele>1055.569</ele>
        <time>2018-12-28T00:05:59Z</time>
      </trkpt>
      <trkpt lat="35.118110" lon="-118.220100">
        <ele>1055.274</ele>
        <time>2018-12-28T00:06:19Z</time>
      </trkpt>
      <trkpt lat="35.118100" lon="-118.219920">
        <ele>1055.164</ele>
        <time>2018-12-28T00:06:39Z</time>
      </trkpt>
      <trkpt lat="35.118030" lon="-118.219150">
        <ele>1052.106</ele>
        <time>2018-12-28T00:06:59Z</time>
      </trkpt>
      <trkpt lat="35.117890" lon="-118.217670">
        <ele>1049.116</ele>
        <time>2018-12-28T00:07:19Z</time>
      </trkpt>
      <trkpt lat="35.117800" lon="-118.216520">
        <ele>1044.008</ele>
        <time>2018-12-28T00:07:39Z</time>
      </trkpt>
      <trkpt lat="35.117760" lon="-118.216190">
        <ele>1043.699</ele>
        <time>2018-12-28T00:07:59Z</time>
      </trkpt>
      <trkpt lat="35.117640" lon="-118.214710">
        <ele>1040.947</ele>
        <time>2018-12-28T00:08:19Z</time>
      </trkpt>
      <trkpt lat="35.117380" lon="-118.211030">
        <ele>1031.362</ele>
        <time>2018-12-28T00:08:39Z</time>
      </trkpt>
      <trkpt lat="35.117310" lon="-118.210030">
        <ele>1028.442</ele>
        <time>2018-12-28T00:08:59Z</time>
      </trkpt>
      <trkpt lat="35.117150" lon="-118.207790">
        <ele>1022.626</ele>
        <time>2018-12-28T00:09:19Z</time>
      </trkpt>
      <trkpt lat="35.116990" lon="-118.205520">
        <ele>1016.170</ele>
        <time>2018-12-28T00:09:39Z</time>
      </trkpt>
      <trkpt lat="35.116880" lon="-118.203930">
        <ele>1009.499</ele>
        <time>2018-12-28T00:09:59Z</time>
      </trkpt>
      <trkpt lat="35.116850" lon="-118.203420">
        <ele>1007.894</ele>
        <time>2018-12-28T00:10:19Z</time>
      </trkpt>
      <trkpt lat="35.116720" lon="-118.201540">
        <ele>1000.821</ele>
        <time>2018-12-28T00:10:39Z</time>
      </trkpt>
      <trkpt lat="35.116680" lon="-118.200960">
        <ele>1000.341</ele>
        <time>2018-12-28T00:10:59Z</time>
      </trkpt>
      <trkpt lat="35.116640" lon="-118.200430">
        <ele>1000.505</ele>
        <time>2018-12-28T00:11:19Z</time>
      </trkpt>
      <trkpt lat="35.116590" lon="-118.199680">
        <ele>999.508</ele>
        <time>2018-12-28T00:11:39Z</time>
      </trkpt>
      <trkpt lat="35.116510" lon="-118.198670">
        <ele>997.015</ele>
        <time>2018-12-28T00:11:59Z</time>
      </trkpt>
      <trkpt lat="35.116460" lon="-118.197900">
        <ele>995.323</ele>
        <time>2018-12-28T00:12:19Z</time>
      </trkpt>
      <trkpt lat="35.116410" lon="-118.197150">
        <ele>994.478</ele>
        <time>2018-12-28T00:12:39Z</time>
      </trkpt>
      <trkpt lat="35.116350" lon="-118.196330">
        <ele>992.458</ele>
        <time>2018-12-28T00:12:59Z</time>
      </trkpt>
      <trkpt lat="35.116240" lon="-118.194900">
        <ele>988.722</ele>
        <time>2018-12-28T00:13:19Z</time>
      </trkpt>
      <trkpt lat="35.116180" lon="-118.194070">
        <ele>988.296</ele>
        <time>2018-12-28T00:13:39Z</time>
      </trkpt>
      <trkpt lat="35.116130" lon="-118.193400">
        <ele>986.245</ele>
        <time>2018-12-28T00:13:59Z</time>
      </trkpt>
      <trkpt lat="35.116040" lon="-118.192430">
        <ele>982.450</ele>
        <time>2018-12-28T00:14:19Z</time>
      </trkpt>
      <trkpt lat="35.115950" lon="-118.191590">
        <ele>976.734</ele>
        <time>2018-12-28T00:14:39Z</time>
      </trkpt>
      <trkpt lat="35.115840" lon="-118.190640">
        <ele>975.455</ele>
        <time>2018-12-28T00:14:59Z</time>
      </trkpt>
      <trkpt lat="35.115780" lon="-118.190150">
        <ele>975.410</ele>
        <time>2018-12-28T00:15:19Z</time>
      </trkpt>
      <trkpt lat="35.115700" lon="-118.189570">
        <ele>972.908</ele>
        <time>2018-12-28T00:15:39Z</time>
      </trkpt>
      <trkpt lat="35.115660" lon="-118.189280">
        <ele>971.596</ele>
        <time>2018-12-28T00:15:59Z</time>
      </trkpt>
      <trkpt lat="35.115590" lon="-118.188760">
        <ele>971.434</ele>
        <time>2018-12-28T00:16:19Z</time>
      </trkpt>
      <trkpt lat="35.115460" lon="-118.187950">
        <ele>971.859</ele>
        <time>2018-12-28T00:16:39Z</time>
      </trkpt>
      <trkpt lat="35.115330" lon="-118.187100">
        <ele>970.489</ele>
        <time>2018-12-28T00:16:59Z</time>
      </trkpt>
      <trkpt lat="35.115240" lon="-118.186560">
        <ele>969.573</ele>
        <time>2018-12-28T00:17:19Z</time>
      </trkpt>
      <trkpt lat="35.115040" lon="-118.185500">
        <ele>967.757</ele>
        <time>2018-12-28T00:17:39Z</time>
      </trkpt>
      <trkpt lat="35.114970" lon="-118.185080">
        <ele>966.766</ele>
        <time>2018-12-28T00:17:59Z</time>
      </trkpt>
      <trkpt lat="35.114710" lon="-118.183810">
        <ele>963.831</ele>
        <time>2018-12-28T00:18:19Z</time>
      </trkpt>
      <trkpt lat="35.114510" lon="-118.182860">
        <ele>962.347</ele>
        <time>2018-12-28T00:18:39Z</time>
      </trkpt>
      <trkpt lat="35.114380" lon="-118.182310">
        <ele>960.929</ele>
        <time>2018-12-28T00:18:59Z</time>
      </trkpt>
      <trkpt lat="35.114220" lon="-118.181620">
        <ele>959.121</ele>
        <time>2018-12-28T00:19:19Z</time>
      </trkpt>
      <trkpt lat="35.114030" lon="-118.180860">
        <ele>957.908</ele>
        <time>2018-12-28T00:19:39Z</time>
      </trkpt>
      <trkpt lat="35.113790" lon="-118.179910">
        <ele>956.067</ele>
        <time>2018-12-28T00:19:59Z</time>
      </trkpt>
      <trkpt lat="35.113510" lon="-118.178880">
        <ele>953.775</ele>
        <time>2018-12-28T00:20:19Z</time>
      </trkpt>
      <trkpt lat="35.113280" lon="-118.178090">
        <ele>952.380</ele>
        <time>2018-12-28T00:20:39Z</time>
      </trkpt>
      <trkpt lat="35.113020" lon="-118.177190">
        <ele>950.650</ele>
        <time>2018-12-28T00:20:59Z</time>
      </trkpt>
      <trkpt lat="35.112760" lon="-118.176360">
        <ele>948.984</ele>
        <time>2018-12-28T00:21:19Z</time>
      </trkpt>
      <trkpt lat="35.112460" lon="-118.175430">
        <ele>947.338</ele>
        <time>2018-12-28T00:21:39Z</time>
      </trkpt>
      <trkpt lat="35.112160" lon="-118.174550">
        <ele>946.487</ele>
        <time>2018-12-28T00:21:59Z</time>
      </trkpt>
      <trkpt lat="35.112060" lon="-118.174250">
        <ele>945.952</ele>
        <time>2018-12-28T00:22:19Z</time>
      </trkpt>
      <trkpt lat="35.111680" lon="-118.173220">
        <ele>943.699</ele>
        <time>2018-12-28T00:22:39Z</time>
      </trkpt>
      <trkpt lat="35.111350" lon="-118.172330">
        <ele>941.407</ele>
        <time>2018-12-28T00:22:59Z</time>
      </trkpt>
      <trkpt lat="35.111270" lon="-118.172120">
        <ele>941.127</ele>
        <time>2018-12-28T00:23:19Z</time>
      </trkpt>
      <trkpt lat="35.111230" lon="-118.172010">
        <ele>940.908</ele>
        <time>2018-12-28T00:23:39Z</time>
      </trkpt>
      <trkpt lat="35.111010" lon="-118.171450">
        <ele>940.012</ele>
        <time>2018-12-28T00:23:59Z</time>
      </trkpt>
      <trkpt lat="35.110740" lon="-118.170760">
        <ele>938.610</ele>
        <time>2018-12-28T00:24:19Z</time>
      </trkpt>
      <trkpt lat="35.110450" lon="-118.170050">
        <ele>936.875</ele>
        <time>2018-12-28T00:24:39Z</time>
      </trkpt>
      <trkpt lat="35.110080" lon="-118.169190">
        <ele>934.815</ele>
        <time>2018-12-28T00:24:59Z</time>
      </trkpt>
      <trkpt lat="35.109770" lon="-118.168490">
        <ele>933.329</ele>
        <time>2018-12-28T00:25:19Z</time>
      </trkpt>
      <trkpt lat="35.109620" lon="-118.168170">
        <ele>932.693</ele>
        <time>2018-12-28T00:25:39Z</time>
      </trkpt>
      <trkpt lat="35.109320" lon="-118.167500">
        <ele>931.282</ele>
        <time>2018-12-28T00:25:59Z</time>
      </trkpt>
      <trkpt lat="35.108850" lon="-118.166480">
        <ele>928.957</ele>
        <time>2018-12-28T00:26:19Z</time>
      </trkpt>
      <trkpt lat="35.108410" lon="-118.165530">
        <ele>927.171</ele>
        <time>2018-12-28T00:26:39Z</time>
      </trkpt>
      <trkpt lat="35.107880" lon="-118.164400">
        <ele>924.941</ele>
        <time>2018-12-28T00:26:59Z</time>
      </trkpt>
      <trkpt lat="35.107210" lon="-118.162940">
        <ele>922.415</ele>
        <time>2018-12-28T00:27:19Z</time>
      </trkpt>
      <trkpt lat="35.106840" lon="-118.162140">
        <ele>921.408</ele>
        <time>2018-12-28T00:27:39Z</time>
      </trkpt>
      <trkpt lat="35.106540" lon="-118.161500">
        <ele>919.890</ele>
        <time>2018-12-28T00:27:59Z</time>
      </trkpt>
      <trkpt lat="35.106240" lon="-118.160830">
        <ele>918.058</ele>
        <time>2018-12-28T00:28:19Z</time>
      </trkpt>
      <trkpt lat="35.105910" lon="-118.160130">
        <ele>916.653</ele>
        <time>2018-12-28T00:28:39Z</time>
      </trkpt>
      <trkpt lat="35.105340" lon="-118.158880">
        <ele>914.433</ele>
        <time>2018-12-28T00:28:59Z</time>
      </trkpt>
      <trkpt lat="35.104840" lon="-118.157800">
        <ele>911.977</ele>
        <time>2018-12-28T00:29:19Z</time>
      </trkpt>
      <trkpt lat="35.104180" lon="-118.156390">
        <ele>909.851</ele>
        <time>2018-12-28T00:29:39Z</time>
      </trkpt>
      <trkpt lat="35.103980" lon="-118.155950">
        <ele>909.270</ele>
        <time>2018-12-28T00:29:59Z</time>
      </trkpt>
      <trkpt lat="35.103660" lon="-118.155270">
        <ele>907.935</ele>
        <time>2018-12-28T00:30:19Z</time>
      </trkpt>
      <trkpt lat="35.103220" lon="-118.154310">
        <ele>905.748</ele>
        <time>2018-12-28T00:30:39Z</time>
      </trkpt>
      <trkpt lat="35.102610" lon="-118.153000">
        <ele>903.861</ele>
        <time>2018-12-28T00:30:59Z</time>
      </trkpt>
      <trkpt lat="35.102250" lon="-118.152220">
        <ele>902.617</ele>
        <time>2018-12-28T00:31:19Z</time>
      </trkpt>
      <trkpt lat="35.102150" lon="-118.152000">
        <ele>902.208</ele>
        <time>2018-12-28T00:31:39Z</time>
      </trkpt>
      <trkpt lat="35.101340" lon="-118.150250">
        <ele>898.617</ele>
        <time>2018-12-28T00:31:59Z</time>
      </trkpt>
      <trkpt lat="35.101339" lon="-118.150247">
        <ele>898.655</ele>
        <time>2018-12-28T00:32:19Z</time>
      </trkpt>
      <trkpt lat="35.101230" lon="-118.150110">
        <ele>898.360</ele>
        <time>2018-12-28T00:32:39Z</time>
      </trkpt>
      <trkpt lat="35.101180" lon="-118.150040">
        <ele>898.290</ele>
        <time>2018-12-28T00:32:59Z</time>
      </trkpt>
      <trkpt lat="35.101120" lon="-118.149920">
        <ele>898.044</ele>
        <time>2018-12-28T00:33:19Z</time>
      </trkpt>
      <trkpt lat="35.101040" lon="-118.149780">
        <ele>897.738</ele>
        <time>2018-12-28T00:33:39Z</time>
      </trkpt>
      <trkpt lat="35.100970" lon="-118.149670">
        <ele>897.567</ele>
        <time>2018-12-28T00:33:59Z</time>
      </trkpt>
      <trkpt lat="35.100840" lon="-118.149430">
        <ele>897.142</ele>
        <time>2018-12-28T00:34:19Z</time>
      </trkpt>
      <trkpt lat="35.100720" lon="-118.149220">
        <ele>896.741</ele>
        <time>2018-12-28T00:34:39Z</time>
      </trkpt>
      <trkpt lat="35.100640" lon="-118.149100">
        <ele>896.481</ele>
        <time>2018-12-28T00:34:59Z</time>
      </trkpt>
      <trkpt lat="35.100600" lon="-118.149040">
        <ele>896.209</ele>
        <time>2018-12-28T00:35:19Z</time>
      </trkpt>
      <trkpt lat="35.100550" lon="-118.148980">
        <ele>896.108</ele>
        <time>2018-12-28T00:35:39Z</time>
      </trkpt>
      <trkpt lat="35.100530" lon="-118.148940">
        <ele>896.067</ele>
        <time>2018-12-28T00:35:59Z</time>
      </trkpt>
      <trkpt lat="35.100470" lon="-118.148880">
        <ele>895.835</ele>
        <time>2018-12-28T00:36:19Z</time>
      </trkpt>
      <trkpt lat="35.100400" lon="-118.148790">
        <ele>895.620</ele>
        <time>2018-12-28T00:36:39Z</time>
      </trkpt>
      <trkpt lat="35.100300" lon="-118.148680">
        <ele>895.420</ele>
        <time>2018-12-28T00:36:59Z</time>
      </trkpt>
      <trkpt lat="35.100120" lon="-118.148500">
        <ele>894.984</ele>
        <time>2018-12-28T00:37:19Z</time>
      </trkpt>
      <trkpt lat="35.099950" lon="-118.148350">
        <ele>894.558</ele>
        <time>2018-12-28T00:37:39Z</time>
      </trkpt>
      <trkpt lat="35.099780" lon="-118.148200">
        <ele>894.157</ele>
        <time>2018-12-28T00:37:59Z</time>
      </trkpt>
      <trkpt lat="35.099620" lon="-118.148050">
        <ele>893.732</ele>
        <time>2018-12-28T00:38:19Z</time>
      </trkpt>
      <trkpt lat="35.099470" lon="-118.147910">
        <ele>893.478</ele>
        <time>2018-12-28T00:38:39Z</time>
      </trkpt>
      <trkpt lat="35.099340" lon="-118.147800">
        <ele>893.133</ele>
        <time>2018-12-28T00:38:59Z</time>
      </trkpt>
      <trkpt lat="35.099220" lon="-118.147690">
        <ele>892.926</ele>
        <time>2018-12-28T00:39:19Z</time>
      </trkpt>
      <trkpt lat="35.099070" lon="-118.147550">
        <ele>892.608</ele>
        <time>2018-12-28T00:39:39Z</time>
      </trkpt>
      <trkpt lat="35.098910" lon="-118.147400">
        <ele>892.370</ele>
        <time>2018-12-28T00:39:59Z</time>
      </trkpt>
      <trkpt lat="35.098780" lon="-118.147290">
        <ele>892.168</ele>
        <time>2018-12-28T00:40:19Z</time>
      </trkpt>
      <trkpt lat="35.098660" lon="-118.147180">
        <ele>891.853</ele>
        <time>2018-12-28T00:40:39Z</time>
      </trkpt>
      <trkpt lat="35.098510" lon="-118.147050">
        <ele>891.573</ele>
        <time>2018-12-28T00:40:59Z</time>
      </trkpt>
      <trkpt lat="35.098390" lon="-118.146940">
        <ele>891.247</ele>
        <time>2018-12-28T00:41:19Z</time>
      </trkpt>
      <trkpt lat="35.098300" lon="-118.146850">
        <ele>891.041</ele>
        <time>2018-12-28T00:41:39Z</time>
      </trkpt>
      <trkpt lat="35.098210" lon="-118.146760">
        <ele>890.880</ele>
        <time>2018-12-28T00:41:59Z</time>
      </trkpt>
      <trkpt lat="35.098130" lon="-118.146670">
        <ele>890.615</ele>
        <time>2018-12-28T00:42:19Z</time>
      </trkpt>
      <trkpt lat="35.098070" lon="-118.146590">
        <ele>890.383</ele>
        <time>2018-12-28T00:42:39Z</time>
      </trkpt>
      <trkpt lat="35.097980" lon="-118.146460">
        <ele>890.025</ele>
        <time>2018-12-28T00:42:59Z</time>
      </trkpt>
      <trkpt lat="35.097900" lon="-118.146320">
        <ele>889.617</ele>
        <time>2018-12-28T00:43:19Z</time>
      </trkpt>
      <trkpt lat="35.097780" lon="-118.146120">
        <ele>889.108</ele>
        <time>2018-12-28T00:43:39Z</time>
      </trkpt>
      <trkpt lat="35.097660" lon="-118.145890">
        <ele>888.621</ele>
        <time>2018-12-28T00:43:59Z</time>
      </trkpt>
      <trkpt lat="35.097520" lon="-118.145620">
        <ele>888.099</ele>
        <time>2018-12-28T00:44:19Z</time>
      </trkpt>
      <trkpt lat="35.097516" lon="-118.145619">
        <ele>888.024</ele>
        <time>2018-12-28T00:44:39Z</time>
      </trkpt>
      <trkpt lat="35.097510" lon="-118.145590">
        <ele>887.924</ele>
        <time>2018-12-28T00:44:59Z</time>
      </trkpt>
      <trkpt lat="35.097510" lon="-118.145560">
        <ele>887.918</ele>
        <time>2018-12-28T00:45:19Z</time>
      </trkpt>
      <trkpt lat="35.097510" lon="-118.145530">
        <ele>887.852</ele>
        <time>2018-12-28T00:45:39Z</time>
      </trkpt>
      <trkpt lat="35.097510" lon="-118.145490">
        <ele>887.841</ele>
        <time>2018-12-28T00:45:59Z</time>
      </trkpt>
      <trkpt lat="35.097510" lon="-118.145460">
        <ele>887.746</ele>
        <time>2018-12-28T00:46:19Z</time>
      </trkpt>
      <trkpt lat="35.097520" lon="-118.145390">
        <ele>887.656</ele>
        <time>2018-12-28T00:46:39Z</time>
      </trkpt>
      <trkpt lat="35.097520" lon="-118.145360">
        <ele>887.659</ele>
        <time>2018-12-28T00:46:59Z</time>
      </trkpt>
      <trkpt lat="35.097530" lon="-118.145320">
        <ele>887.514</ele>
        <time>2018-12-28T00:47:19Z</time>
      </trkpt>
      <trkpt lat="35.097550" lon="-118.145270">
        <ele>887.508</ele>
        <time>2018-12-28T00:47:39Z</time>
      </trkpt>
      <trkpt lat="35.097580" lon="-118.145230">
        <ele>887.448</ele>
        <time>2018-12-28T00:47:59Z</time>
      </trkpt>
      <trkpt lat="35.097600" lon="-118.145170">
        <ele>887.496</ele>
        <time>2018-12-28T00:48:19Z</time>
      </trkpt>
      <trkpt lat="35.097820" lon="-118.145000">
        <ele>887.391</ele>
        <time>2018-12-28T00:48:39Z</time>
      </trkpt>
      <trkpt lat="35.098030" lon="-118.144840">
        <ele>887.211</ele>
        <time>2018-12-28T00:48:59Z</time>
      </trkpt>
      <trkpt lat="35.098490" lon="-118.144480">
        <ele>887.045</ele>
        <time>2018-12-28T00:49:19Z</time>
      </trkpt>
      <trkpt lat="35.098520" lon="-118.144460">
        <ele>887.089</ele>
        <time>2018-12-28T00:49:39Z</time>
      </trkpt>
      <trkpt lat="35.098630" lon="-118.144370">
        <ele>886.918</ele>
        <time>2018-12-28T00:49:59Z</time>
      </trkpt>
      <trkpt lat="35.098660" lon="-118.144350">
        <ele>886.933</ele>
        <time>2018-12-28T00:50:19Z</time>
      </trkpt>
      <trkpt lat="35.098930" lon="-118.144140">
        <ele>886.896</ele>
        <time>2018-12-28T00:50:39Z</time>
      </trkpt>
      <trkpt lat="35.099040" lon="-118.144050">
        <ele>886.731</ele>
        <time>2018-12-28T00:50:59Z</time>
      </trkpt>
      <trkpt lat="35.099360" lon="-118.143800">
        <ele>886.524</ele>
        <time>2018-12-28T00:51:19Z</time>
      </trkpt>
      <trkpt lat="35.099770" lon="-118.143490">
        <ele>886.208</ele>
        <time>2018-12-28T00:51:39Z</time>
      </trkpt>
      <trkpt lat="35.099990" lon="-118.143320">
        <ele>886.112</ele>
        <time>2018-12-28T00:51:59Z</time>
      </trkpt>
      <trkpt lat="35.100110" lon="-118.143220">
        <ele>886.010</ele>
        <time>2018-12-28T00:52:19Z</time>
      </trkpt>
      <trkpt lat="35.100470" lon="-118.142930">
        <ele>885.935</ele>
        <time>2018-12-28T00:52:39Z</time>
      </trkpt>
      <trkpt lat="35.100480" lon="-118.142920">
        <ele>885.925</ele>
        <time>2018-12-28T00:52:59Z</time>
      </trkpt>
      <trkpt lat="35.100600" lon="-118.142830">
        <ele>885.869</ele>
        <time>2018-12-28T00:53:19Z</time>
      </trkpt>
      <trkpt lat="35.100720" lon="-118.142740">
        <ele>885.873</ele>
        <time>2018-12-28T00:53:39Z</time>
      </trkpt>
      <trkpt lat="35.101110" lon="-118.142430">
        <ele>885.672</ele>
        <time>2018-12-28T00:53:59Z</time>
      </trkpt>
      <trkpt lat="35.101720" lon="-118.141950">
        <ele>884.987</ele>
        <time>2018-12-28T00:54:19Z</time>
      </trkpt>
      <trkpt lat="35.102130" lon="-118.141620">
        <ele>884.496</ele>
        <time>2018-12-28T00:54:39Z</time>
      </trkpt>
      <trkpt lat="35.102610" lon="-118.141250">
        <ele>884.131</ele>
        <time>2018-12-28T00:54:59Z</time>
      </trkpt>
      <trkpt lat="35.103280" lon="-118.140720">
        <ele>883.424</ele>
        <time>2018-12-28T00:55:19Z</time>
      </trkpt>
      <trkpt lat="35.103730" lon="-118.140370">
        <ele>883.008</ele>
        <time>2018-12-28T00:55:39Z</time>
      </trkpt>
      <trkpt lat="35.104260" lon="-118.139960">
        <ele>882.682</ele>
        <time>2018-12-28T00:55:59Z</time>
      </trkpt>
      <trkpt lat="35.104770" lon="-118.139560">
        <ele>882.230</ele>
        <time>2018-12-28T00:56:19Z</time>
      </trkpt>
      <trkpt lat="35.105180" lon="-118.139240">
        <ele>881.815</ele>
        <time>2018-12-28T00:56:39Z</time>
      </trkpt>
      <trkpt lat="35.105370" lon="-118.139090">
        <ele>881.735</ele>
        <time>2018-12-28T00:56:59Z</time>
      </trkpt>
      <trkpt lat="35.105610" lon="-118.138910">
        <ele>881.539</ele>
        <time>2018-12-28T00:57:19Z</time>
      </trkpt>
      <trkpt lat="35.105900" lon="-118.138680">
        <ele>881.223</ele>
        <time>2018-12-28T00:57:39Z</time>
      </trkpt>
      <trkpt lat="35.106260" lon="-118.138400">
        <ele>880.962</ele>
        <time>2018-12-28T00:57:59Z</time>
      </trkpt>
      <trkpt lat="35.106780" lon="-118.137990">
        <ele>880.617</ele>
        <time>2018-12-28T00:58:19Z</time>
      </trkpt>
      <trkpt lat="35.107070" lon="-118.137770">
        <ele>880.545</ele>
        <time>2018-12-28T00:58:39Z</time>
      </trkpt>
      <trkpt lat="35.107260" lon="-118.137620">
        <ele>880.447</ele>
        <time>2018-12-28T00:58:59Z</time>
      </trkpt>
      <trkpt lat="35.107610" lon="-118.137360">
        <ele>880.111</ele>
        <time>2018-12-28T00:59:19Z</time>
      </trkpt>
      <trkpt lat="35.107890" lon="-118.137130">
        <ele>879.808</ele>
        <time>2018-12-28T00:59:39Z</time>
      </trkpt>
      <trkpt lat="35.107960" lon="-118.137080">
        <ele>879.857</ele>
        <time>2018-12-28T00:59:59Z</time>
      </trkpt>
      <trkpt lat="35.108150" lon="-118.136930">
        <ele>879.615</ele>
        <time>2018-12-28T01:00:19Z</time>
      </trkpt>
      <trkpt lat="35.108500" lon="-118.136660">
        <ele>879.240</ele>
        <time>2018-12-28T01:00:39Z</time>
      </trkpt>
      <trkpt lat="35.108720" lon="-118.136490">
        <ele>878.910</ele>
        <time>2018-12-28T01:00:59Z</time>
      </trkpt>
      <trkpt lat="35.109160" lon="-118.136150">
        <ele>878.494</ele>
        <time>2018-12-28T01:01:19Z</time>
      </trkpt>
      <trkpt lat="35.109570" lon="-118.135840">
        <ele>878.048</ele>
        <time>2018-12-28T01:01:39Z</time>
      </trkpt>
      <trkpt lat="35.109680" lon="-118.135740">
        <ele>877.817</ele>
        <time>2018-12-28T01:01:59Z</time>
      </trkpt>
      <trkpt lat="35.110410" lon="-118.135180">
        <ele>877.142</ele>
        <time>2018-12-28T01:02:19Z</time>
      </trkpt>
      <trkpt lat="35.110790" lon="-118.134890">
        <ele>876.542</ele>
        <time>2018-12-28T01:02:39Z</time>
      </trkpt>
      <trkpt lat="35.111050" lon="-118.134690">
        <ele>875.922</ele>
        <time>2018-12-28T01:02:59Z</time>
      </trkpt>
      <trkpt lat="35.111530" lon="-118.134310">
        <ele>875.114</ele>
        <time>2018-12-28T01:03:19Z</time>
      </trkpt>
      <trkpt lat="35.111980" lon="-118.133970">
        <ele>874.808</ele>
        <time>2018-12-28T01:03:39Z</time>
      </trkpt>
      <trkpt lat="35.112170" lon="-118.133820">
        <ele>874.767</ele>
        <time>2018-12-28T01:03:59Z</time>
      </trkpt>
      <trkpt lat="35.112760" lon="-118.133370">
        <ele>874.585</ele>
        <time>2018-12-28T01:04:19Z</time>
      </trkpt>
      <trkpt lat="35.113270" lon="-118.132980">
        <ele>874.460</ele>
        <time>2018-12-28T01:04:39Z</time>
      </trkpt>
      <trkpt lat="35.114010" lon="-118.132420">
        <ele>873.990</ele>
        <time>2018-12-28T01:04:59Z</time>
      </trkpt>
      <trkpt lat="35.114530" lon="-118.132040">
        <ele>873.194</ele>
        <time>2018-12-28T01:05:19Z</time>
      </trkpt>
      <trkpt lat="35.114780" lon="-118.131860">
        <ele>872.698</ele>
        <time>2018-12-28T01:05:39Z</time>
      </trkpt>
      <trkpt lat="35.114870" lon="-118.131800">
        <ele>872.597</ele>
        <time>2018-12-28T01:05:59Z</time>
      </trkpt>
      <trkpt lat="35.116120" lon="-118.130880">
        <ele>871.282</ele>
        <time>2018-12-28T01:06:19Z</time>
      </trkpt>
      <trkpt lat="35.116810" lon="-118.130350">
        <ele>870.551</ele>
        <time>2018-12-28T01:06:39Z</time>
      </trkpt>
      <trkpt lat="35.117580" lon="-118.129750">
        <ele>870.001</ele>
        <time>2018-12-28T01:06:59Z</time>
      </trkpt>
      <trkpt lat="35.118500" lon="-118.129030">
        <ele>869.211</ele>
        <time>2018-12-28T01:07:19Z</time>
      </trkpt>
      <trkpt lat="35.118710" lon="-118.128870">
        <ele>869.008</ele>
        <time>2018-12-28T01:07:39Z</time>
      </trkpt>
      <trkpt lat="35.119420" lon="-118.128320">
        <ele>868.198</ele>
        <time>2018-12-28T01:07:59Z</time>
      </trkpt>
      <trkpt lat="35.120010" lon="-118.127860">
        <ele>867.086</ele>
        <time>2018-12-28T01:08:19Z</time>
      </trkpt>
      <trkpt lat="35.120920" lon="-118.127150">
        <ele>865.731</ele>
        <time>2018-12-28T01:08:39Z</time>
      </trkpt>
      <trkpt lat="35.121450" lon="-118.126730">
        <ele>864.821</ele>
        <time>2018-12-28T01:08:59Z</time>
      </trkpt>
      <trkpt lat="35.121630" lon="-118.126590">
        <ele>864.645</ele>
        <time>2018-12-28T01:09:19Z</time>
      </trkpt>
      <trkpt lat="35.121910" lon="-118.126380">
        <ele>864.229</ele>
        <time>2018-12-28T01:09:39Z</time>
      </trkpt>
      <trkpt lat="35.124060" lon="-118.124700">
        <ele>861.278</ele>
        <time>2018-12-28T01:09:59Z</time>
      </trkpt>
      <trkpt lat="35.125220" lon="-118.123800">
        <ele>859.743</ele>
        <time>2018-12-28T01:10:19Z</time>
      </trkpt>
      <trkpt lat="35.125740" lon="-118.123390">
        <ele>859.126</ele>
        <time>2018-12-28T01:10:39Z</time>
      </trkpt>
      <trkpt lat="35.126140" lon="-118.123090">
        <ele>858.747</ele>
        <time>2018-12-28T01:10:59Z</time>
      </trkpt>
      <trkpt lat="35.126730" lon="-118.122620">
        <ele>857.911</ele>
        <time>2018-12-28T01:11:19Z</time>
      </trkpt>
      <trkpt lat="35.127480" lon="-118.122040">
        <ele>856.808</ele>
        <time>2018-12-28T01:11:39Z</time>
      </trkpt>
      <trkpt lat="35.128030" lon="-118.121620">
        <ele>856.275</ele>
        <time>2018-12-28T01:11:59Z</time>
      </trkpt>
      <trkpt lat="35.128250" lon="-118.121440">
        <ele>855.713</ele>
        <time>2018-12-28T01:12:19Z</time>
      </trkpt>
      <trkpt lat="35.128820" lon="-118.120990">
        <ele>854.468</ele>
        <time>2018-12-28T01:12:39Z</time>
      </trkpt>
      <trkpt lat="35.129400" lon="-118.120530">
        <ele>854.158</ele>
        <time>2018-12-28T01:12:59Z</time>
      </trkpt>
      <trkpt lat="35.129410" lon="-118.120520">
        <ele>854.162</ele>
        <time>2018-12-28T01:13:19Z</time>
      </trkpt>
      <trkpt lat="35.130160" lon="-118.119950">
        <ele>853.156</ele>
        <time>2018-12-28T01:13:39Z</time>
      </trkpt>
      <trkpt lat="35.130310" lon="-118.119840">
        <ele>853.085</ele>
        <time>2018-12-28T01:13:59Z</time>
      </trkpt>
      <trkpt lat="35.130980" lon="-118.119320">
        <ele>852.190</ele>
        <time>2018-12-28T01:14:19Z</time>
      </trkpt>
      <trkpt lat="35.131690" lon="-118.118780">
        <ele>850.615</ele>
        <time>2018-12-28T01:14:39Z</time>
      </trkpt>
      <trkpt lat="35.132830" lon="-118.117930">
        <ele>849.165</ele>
        <time>2018-12-28T01:14:59Z</time>
      </trkpt>
      <trkpt lat="35.133080" lon="-118.117750">
        <ele>848.811</ele>
        <time>2018-12-28T01:15:19Z</time>
      </trkpt>
      <trkpt lat="35.134060" lon="-118.117030">
        <ele>847.308</ele>
        <time>2018-12-28T01:15:39Z</time>
      </trkpt>
      <trkpt lat="35.134610" lon="-118.116610">
        <ele>845.754</ele>
        <time>2018-12-28T01:15:59Z</time>
      </trkpt>
      <trkpt lat="35.135420" lon="-118.116000">
        <ele>844.172</ele>
        <time>2018-12-28T01:16:19Z</time>
      </trkpt>
      <trkpt lat="35.136090" lon="-118.115480">
        <ele>842.987</ele>
        <time>2018-12-28T01:16:39Z</time>
      </trkpt>
      <trkpt lat="35.136960" lon="-118.114800">
        <ele>842.137</ele>
        <time>2018-12-28T01:16:59Z</time>
      </trkpt>
      <trkpt lat="35.137160" lon="-118.114650">
        <ele>842.161</ele>
        <time>2018-12-28T01:17:19Z</time>
      </trkpt>
      <trkpt lat="35.138400" lon="-118.113680">
        <ele>840.125</ele>
        <time>2018-12-28T01:17:39Z</time>
      </trkpt>
      <trkpt lat="35.139940" lon="-118.112470">
        <ele>836.394</ele>
        <time>2018-12-28T01:17:59Z</time>
      </trkpt>
      <trkpt lat="35.140250" lon="-118.112220">
        <ele>836.159</ele>
        <time>2018-12-28T01:18:19Z</time>
      </trkpt>
      <trkpt lat="35.140300" lon="-118.112180">
        <ele>836.086</ele>
        <time>2018-12-28T01:18:39Z</time>
      </trkpt>
      <trkpt lat="35.141360" lon="-118.111350">
        <ele>834.160</ele>
        <time>2018-12-28T01:18:59Z</time>
      </trkpt>
      <trkpt lat="35.143960" lon="-118.109330">
        <ele>829.026</ele>
        <time>2018-12-28T01:19:19Z</time>
      </trkpt>
      <trkpt lat="35.144440" lon="-118.108960">
        <ele>828.008</ele>
        <time>2018-12-28T01:19:39Z</time>
      </trkpt>
      <trkpt lat="35.151100" lon="-118.103770">
        <ele>814.861</ele>
        <time>2018-12-28T01:19:59Z</time>
      </trkpt>
      <trkpt lat="35.153020" lon="-118.102280">
        <ele>811.669</ele>
        <time>2018-12-28T01:20:19Z</time>
      </trkpt>
      <trkpt lat="35.153410" lon="-118.101980">
        <ele>811.234</ele>
        <time>2018-12-28T01:20:39Z</time>
      </trkpt>
      <trkpt lat="35.154270" lon="-118.101280">
        <ele>809.674</ele>
        <time>2018-12-28T01:20:59Z</time>
      </trkpt>
      <trkpt lat="35.154470" lon="-118.101110">
        <ele>809.318</ele>
        <time>2018-12-28T01:21:19Z</time>
      </trkpt>
      <trkpt lat="35.154640" lon="-118.100980">
        <ele>809.062</ele>
        <time>2018-12-28T01:21:39Z</time>
      </trkpt>
      <trkpt lat="35.155340" lon="-118.100380">
        <ele>807.911</ele>
        <time>2018-12-28T01:21:59Z</time>
      </trkpt>
      <trkpt lat="35.155950" lon="-118.099830">
        <ele>806.846</ele>
        <time>2018-12-28T01:22:19Z</time>
      </trkpt>
      <trkpt lat="35.156580" lon="-118.099260">
        <ele>805.826</ele>
        <time>2018-12-28T01:22:39Z</time>
      </trkpt>
      <trkpt lat="35.157370" lon="-118.098550">
        <ele>804.447</ele>
        <time>2018-12-28T01:22:59Z</time>
      </trkpt>
      <trkpt lat="35.157900" lon="-118.098080">
        <ele>803.511</ele>
        <time>2018-12-28T01:23:19Z</time>
      </trkpt>
      <trkpt lat="35.158770" lon="-118.097350">
        <ele>801.908</ele>
        <time>2018-12-28T01:23:39Z</time>
      </trkpt>
      <trkpt lat="35.158980" lon="-118.097170">
        <ele>801.625</ele>
        <time>2018-12-28T01:23:59Z</time>
      </trkpt>
      <trkpt lat="35.159640" lon="-118.096640">
        <ele>800.323</ele>
        <time>2018-12-28T01:24:19Z</time>
      </trkpt>
      <trkpt lat="35.160520" lon="-118.095950">
        <ele>799.078</ele>
        <time>2018-12-28T01:24:39Z</time>
      </trkpt>
      <trkpt lat="35.162080" lon="-118.094730">
        <ele>796.518</ele>
        <time>2018-12-28T01:24:59Z</time>
      </trkpt>
      <trkpt lat="35.164530" lon="-118.092830">
        <ele>793.082</ele>
        <time>2018-12-28T01:25:19Z</time>
      </trkpt>
      <trkpt lat="35.165470" lon="-118.092100">
        <ele>791.016</ele>
        <time>2018-12-28T01:25:39Z</time>
      </trkpt>
      <trkpt lat="35.167720" lon="-118.090350">
        <ele>787.145</ele>
        <time>2018-12-28T01:25:59Z</time>
      </trkpt>
      <trkpt lat="35.169230" lon="-118.089180">
        <ele>784.860</ele>
        <time>2018-12-28T01:26:19Z</time>
      </trkpt>
      <trkpt lat="35.169590" lon="-118.088890">
        <ele>784.285</ele>
        <time>2018-12-28T01:26:39Z</time>
      </trkpt>
      <trkpt lat="35.170930" lon="-118.087850">
        <ele>782.589</ele>
        <time>2018-12-28T01:26:59Z</time>
      </trkpt>
      <trkpt lat="35.171050" lon="-118.087750">
        <ele>782.217</ele>
        <time>2018-12-28T01:27:19Z</time>
      </trkpt>
      <trkpt lat="35.175970" lon="-118.083930">
        <ele>773.908</ele>
        <time>2018-12-28T01:27:39Z</time>
      </trkpt>
      <trkpt lat="35.180130" lon="-118.080680">
        <ele>767.111</ele>
        <time>2018-12-28T01:27:59Z</time>
      </trkpt>
      <trkpt lat="35.188930" lon="-118.073830">
        <ele>757.469</ele>
        <time>2018-12-28T01:28:19Z</time>
      </trkpt>
      <trkpt lat="35.189920" lon="-118.073060">
        <ele>756.184</ele>
        <time>2018-12-28T01:28:39Z</time>
      </trkpt>
      <trkpt lat="35.191690" lon="-118.071680">
        <ele>754.024</ele>
        <time>2018-12-28T01:28:59Z</time>
      </trkpt>
      <trkpt lat="35.193400" lon="-118.070350">
        <ele>750.338</ele>
        <time>2018-12-28T01:29:19Z</time>
      </trkpt>
      <trkpt lat="35.197000" lon="-118.067550">
        <ele>747.232</ele>
        <time>2018-12-28T01:29:39Z</time>
      </trkpt>
      <trkpt lat="35.197360" lon="-118.067260">
        <ele>746.881</ele>
        <time>2018-12-28T01:29:59Z</time>
      </trkpt>
      <trkpt lat="35.197610" lon="-118.067070">
        <ele>746.536</ele>
        <time>2018-12-28T01:30:19Z</time>
      </trkpt>
      <trkpt lat="35.198620" lon="-118.066280">
        <ele>744.687</ele>
        <time>2018-12-28T01:30:39Z</time>
      </trkpt>
      <trkpt lat="35.199940" lon="-118.065260">
        <ele>743.342</ele>
        <time>2018-12-28T01:30:59Z</time>
      </trkpt>
      <trkpt lat="35.201500" lon="-118.064030">
        <ele>739.626</ele>
        <time>2018-12-28T01:31:19Z</time>
      </trkpt>
      <trkpt lat="35.203220" lon="-118.062710">
        <ele>736.708</ele>
        <time>2018-12-28T01:31:39Z</time>
      </trkpt>
      <trkpt lat="35.204510" lon="-118.061690">
        <ele>734.581</ele>
        <time>2018-12-28T01:31:59Z</time>
      </trkpt>
      <trkpt lat="35.204660" lon="-118.061580">
        <ele>734.249</ele>
        <time>2018-12-28T01:32:19Z</time>
      </trkpt>
      <trkpt lat="35.204690" lon="-118.061550">
        <ele>734.114</ele>
        <time>2018-12-28T01:32:39Z</time>
      </trkpt>
      <trkpt lat="35.204870" lon="-118.061410">
        <ele>733.884</ele>
        <time>2018-12-28T01:32:59Z</time>
      </trkpt>
      <trkpt lat="35.206230" lon="-118.060360">
        <ele>731.428</ele>
        <time>2018-12-28T01:33:19Z</time>
      </trkpt>
      <trkpt lat="35.207350" lon="-118.059480">
        <ele>729.062</ele>
        <time>2018-12-28T01:33:39Z</time>
      </trkpt>
      <trkpt lat="35.207660" lon="-118.059240">
        <ele>728.851</ele>
        <time>2018-12-28T01:33:59Z</time>
      </trkpt>
      <trkpt lat="35.210320" lon="-118.057180">
        <ele>725.476</ele>
        <time>2018-12-28T01:34:19Z</time>
      </trkpt>
      <trkpt lat="35.211430" lon="-118.056310">
        <ele>724.085</ele>
        <time>2018-12-28T01:34:39Z</time>
      </trkpt>
      <trkpt lat="35.212540" lon="-118.055440">
        <ele>721.789</ele>
        <time>2018-12-28T01:34:59Z</time>
      </trkpt>
      <trkpt lat="35.212980" lon="-118.055100">
        <ele>720.617</ele>
        <time>2018-12-28T01:35:19Z</time>
      </trkpt>
      <trkpt lat="35.213200" lon="-118.054930">
        <ele>720.108</ele>
        <time>2018-12-28T01:35:39Z</time>
      </trkpt>
      <trkpt lat="35.213640" lon="-118.054610">
        <ele>719.741</ele>
        <time>2018-12-28T01:35:59Z</time>
      </trkpt>
      <trkpt lat="35.213770" lon="-118.054530">
        <ele>719.529</ele>
        <time>2018-12-28T01:36:19Z</time>
      </trkpt>
      <trkpt lat="35.214000" lon="-118.054370">
        <ele>719.334</ele>
        <time>2018-12-28T01:36:39Z</time>
      </trkpt>
      <trkpt lat="35.214230" lon="-118.054230">
        <ele>719.174</ele>
        <time>2018-12-28T01:36:59Z</time>
      </trkpt>
      <trkpt lat="35.214470" lon="-118.054090">
        <ele>718.948</ele>
        <time>2018-12-28T01:37:19Z</time>
      </trkpt>
      <trkpt lat="35.214830" lon="-118.053890">
        <ele>718.852</ele>
        <time>2018-12-28T01:37:39Z</time>
      </trkpt>
      <trkpt lat="35.215190" lon="-118.053700">
        <ele>718.611</ele>
        <time>2018-12-28T01:37:59Z</time>
      </trkpt>
      <trkpt lat="35.215430" lon="-118.053580">
        <ele>718.586</ele>
        <time>2018-12-28T01:38:19Z</time>
      </trkpt>
      <trkpt lat="35.215560" lon="-118.053520">
        <ele>718.535</ele>
        <time>2018-12-28T01:38:39Z</time>
      </trkpt>
      <trkpt lat="35.215680" lon="-118.053470">
        <ele>718.586</ele>
        <time>2018-12-28T01:38:59Z</time>
      </trkpt>
      <trkpt lat="35.215800" lon="-118.053410">
        <ele>718.414</ele>
        <time>2018-12-28T01:39:19Z</time>
      </trkpt>
      <trkpt lat="35.215920" lon="-118.053360">
        <ele>718.408</ele>
        <time>2018-12-28T01:39:39Z</time>
      </trkpt>
      <trkpt lat="35.216050" lon="-118.053310">
        <ele>718.356</ele>
        <time>2018-12-28T01:39:59Z</time>
      </trkpt>
      <trkpt lat="35.217240" lon="-118.052850">
        <ele>717.614</ele>
        <time>2018-12-28T01:40:19Z</time>
      </trkpt>
      <trkpt lat="35.220360" lon="-118.051720">
        <ele>716.239</ele>
        <time>2018-12-28T01:40:39Z</time>
      </trkpt>
      <trkpt lat="35.221530" lon="-118.051300">
        <ele>716.649</ele>
        <time>2018-12-28T01:40:59Z</time>
      </trkpt>
      <trkpt lat="35.226960" lon="-118.049320">
        <ele>718.983</ele>
        <time>2018-12-28T01:41:19Z</time>
      </trkpt>
      <trkpt lat="35.231380" lon="-118.047680">
        <ele>717.977</ele>
        <time>2018-12-28T01:41:39Z</time>
      </trkpt>
      <trkpt lat="35.232580" lon="-118.047250">
        <ele>716.066</ele>
        <time>2018-12-28T01:41:59Z</time>
      </trkpt>
      <trkpt lat="35.233460" lon="-118.046920">
        <ele>715.811</ele>
        <time>2018-12-28T01:42:19Z</time>
      </trkpt>
      <trkpt lat="35.236470" lon="-118.045820">
        <ele>711.369</ele>
        <time>2018-12-28T01:42:39Z</time>
      </trkpt>
      <trkpt lat="35.239500" lon="-118.044710">
        <ele>705.304</ele>
        <time>2018-12-28T01:42:59Z</time>
      </trkpt>
      <trkpt lat="35.241370" lon="-118.044020">
        <ele>701.324</ele>
        <time>2018-12-28T01:43:19Z</time>
      </trkpt>
      <trkpt lat="35.242470" lon="-118.043620">
        <ele>699.508</ele>
        <time>2018-12-28T01:43:39Z</time>
      </trkpt>
      <trkpt lat="35.256110" lon="-118.038610">
        <ele>667.739</ele>
        <time>2018-12-28T01:43:59Z</time>
      </trkpt>
      <trkpt lat="35.257340" lon="-118.038150">
        <ele>665.137</ele>
        <time>2018-12-28T01:44:19Z</time>
      </trkpt>
      <trkpt lat="35.258990" lon="-118.037550">
        <ele>659.812</ele>
        <time>2018-12-28T01:44:39Z</time>
      </trkpt>
      <trkpt lat="35.260210" lon="-118.037110">
        <ele>658.712</ele>
        <time>2018-12-28T01:44:59Z</time>
      </trkpt>
      <trkpt lat="35.261360" lon="-118.036680">
        <ele>657.956</ele>
        <time>2018-12-28T01:45:19Z</time>
      </trkpt>
      <trkpt lat="35.262510" lon="-118.036260">
        <ele>656.480</ele>
        <time>2018-12-28T01:45:39Z</time>
      </trkpt>
      <trkpt lat="35.263040" lon="-118.036060">
        <ele>655.629</ele>
        <time>2018-12-28T01:45:59Z</time>
      </trkpt>
      <trkpt lat="35.263540" lon="-118.035880">
        <ele>654.994</ele>
        <time>2018-12-28T01:46:19Z</time>
      </trkpt>
      <trkpt lat="35.264040" lon="-118.035700">
        <ele>654.237</ele>
        <time>2018-12-28T01:46:39Z</time>
      </trkpt>
      <trkpt lat="35.264540" lon="-118.035510">
        <ele>653.849</ele>
        <time>2018-12-28T01:46:59Z</time>
      </trkpt>
      <trkpt lat="35.264930" lon="-118.035370">
        <ele>653.313</ele>
        <time>2018-12-28T01:47:19Z</time>
      </trkpt>
      <trkpt lat="35.265310" lon="-118.035230">
        <ele>652.708</ele>
        <time>2018-12-28T01:47:39Z</time>
      </trkpt>
      <trkpt lat="35.265680" lon="-118.035100">
        <ele>652.126</ele>
        <time>2018-12-28T01:47:59Z</time>
      </trkpt>
      <trkpt lat="35.266070" lon="-118.034950">
        <ele>651.644</ele>
        <time>2018-12-28T01:48:19Z</time>
      </trkpt>
      <trkpt lat="35.266440" lon="-118.034820">
        <ele>651.199</ele>
        <time>2018-12-28T01:48:39Z</time>
      </trkpt>
      <trkpt lat="35.266700" lon="-118.034720">
        <ele>650.889</ele>
        <time>2018-12-28T01:48:59Z</time>
      </trkpt>
      <trkpt lat="35.267060" lon="-118.034590">
        <ele>650.343</ele>
        <time>2018-12-28T01:49:19Z</time>
      </trkpt>
      <trkpt lat="35.267440" lon="-118.034450">
        <ele>649.697</ele>
        <time>2018-12-28T01:49:39Z</time>
      </trkpt>
      <trkpt lat="35.267820" lon="-118.034300">
        <ele>648.996</ele>
        <time>2018-12-28T01:49:59Z</time>
      </trkpt>
      <trkpt lat="35.268200" lon="-118.034130">
        <ele>648.231</ele>
        <time>2018-12-28T01:50:19Z</time>
      </trkpt>
      <trkpt lat="35.268460" lon="-118.034010">
        <ele>648.077</ele>
        <time>2018-12-28T01:50:39Z</time>
      </trkpt>
      <trkpt lat="35.268690" lon="-118.033900">
        <ele>648.161</ele>
        <time>2018-12-28T01:50:59Z</time>
      </trkpt>
      <trkpt lat="35.269050" lon="-118.033710">
        <ele>647.727</ele>
        <time>2018-12-28T01:51:19Z</time>
      </trkpt>
      <trkpt lat="35.269410" lon="-118.033510">
        <ele>647.008</ele>
        <time>2018-12-28T01:51:39Z</time>
      </trkpt>
      <trkpt lat="35.269770" lon="-118.033290">
        <ele>646.510</ele>
        <time>2018-12-28T01:51:59Z</time>
      </trkpt>
      <trkpt lat="35.270110" lon="-118.033070">
        <ele>646.068</ele>
        <time>2018-12-28T01:52:19Z</time>
      </trkpt>
      <trkpt lat="35.270340" lon="-118.032910">
        <ele>645.723</ele>
        <time>2018-12-28T01:52:39Z</time>
      </trkpt>
      <trkpt lat="35.270570" lon="-118.032740">
        <ele>645.543</ele>
        <time>2018-12-28T01:52:59Z</time>
      </trkpt>
      <trkpt lat="35.270910" lon="-118.032480">
        <ele>645.027</ele>
        <time>2018-12-28T01:53:19Z</time>
      </trkpt>
      <trkpt lat="35.271340" lon="-118.032120">
        <ele>644.481</ele>
        <time>2018-12-28T01:53:39Z</time>
      </trkpt>
      <trkpt lat="35.271870" lon="-118.031640">
        <ele>643.460</ele>
        <time>2018-12-28T01:53:59Z</time>
      </trkpt>
      <trkpt lat="35.272600" lon="-118.030960">
        <ele>645.785</ele>
        <time>2018-12-28T01:54:19Z</time>
      </trkpt>
      <trkpt lat="35.273330" lon="-118.030270">
        <ele>646.286</ele>
        <time>2018-12-28T01:54:39Z</time>
      </trkpt>
      <trkpt lat="35.273960" lon="-118.029670">
        <ele>646.260</ele>
        <time>2018-12-28T01:54:59Z</time>
      </trkpt>
      <trkpt lat="35.274580" lon="-118.029100">
        <ele>645.326</ele>
        <time>2018-12-28T01:55:19Z</time>
      </trkpt>
      <trkpt lat="35.275210" lon="-118.028500">
        <ele>643.708</ele>
        <time>2018-12-28T01:55:39Z</time>
      </trkpt>
      <trkpt lat="35.275930" lon="-118.027820">
        <ele>643.081</ele>
        <time>2018-12-28T01:55:59Z</time>
      </trkpt>
      <trkpt lat="35.276660" lon="-118.027140">
        <ele>643.469</ele>
        <time>2018-12-28T01:56:19Z</time>
      </trkpt>
      <trkpt lat="35.277280" lon="-118.026550">
        <ele>644.224</ele>
        <time>2018-12-28T01:56:39Z</time>
      </trkpt>
      <trkpt lat="35.278020" lon="-118.025870">
        <ele>644.734</ele>
        <time>2018-12-28T01:56:59Z</time>
      </trkpt>
      <trkpt lat="35.278650" lon="-118.025270">
        <ele>644.278</ele>
        <time>2018-12-28T01:57:19Z</time>
      </trkpt>
      <trkpt lat="35.279380" lon="-118.024590">
        <ele>640.952</ele>
        <time>2018-12-28T01:57:39Z</time>
      </trkpt>
      <trkpt lat="35.280110" lon="-118.023900">
        <ele>634.741</ele>
        <time>2018-12-28T01:57:59Z</time>
      </trkpt>
      <trkpt lat="35.280830" lon="-118.023220">
        <ele>634.656</ele>
        <time>2018-12-28T01:58:19Z</time>
      </trkpt>
      <trkpt lat="35.281260" lon="-118.022820">
        <ele>634.649</ele>
        <time>2018-12-28T01:58:39Z</time>
      </trkpt>
      <trkpt lat="35.281570" lon="-118.022530">
        <ele>634.402</ele>
        <time>2018-12-28T01:58:59Z</time>
      </trkpt>
      <trkpt lat="35.281990" lon="-118.022150">
        <ele>634.522</ele>
        <time>2018-12-28T01:59:19Z</time>
      </trkpt>
      <trkpt lat="35.282500" lon="-118.021670">
        <ele>634.408</ele>
        <time>2018-12-28T01:59:39Z</time>
      </trkpt>
      <trkpt lat="35.283030" lon="-118.021160">
        <ele>634.467</ele>
        <time>2018-12-28T01:59:59Z</time>
      </trkpt>
      <trkpt lat="35.283530" lon="-118.020630">
        <ele>634.365</ele>
        <time>2018-12-28T02:00:19Z</time>
      </trkpt>
      <trkpt lat="35.283820" lon="-118.020300">
        <ele>634.230</ele>
        <time>2018-12-28T02:00:39Z</time>
      </trkpt>
      <trkpt lat="35.284100" lon="-118.019960">
        <ele>634.080</ele>
        <time>2018-12-28T02:00:59Z</time>
      </trkpt>
      <trkpt lat="35.284470" lon="-118.019510">
        <ele>633.834</ele>
        <time>2018-12-28T02:01:19Z</time>
      </trkpt>
      <trkpt lat="35.285330" lon="-118.018480">
        <ele>633.248</ele>
        <time>2018-12-28T02:01:39Z</time>
      </trkpt>
      <trkpt lat="35.285410" lon="-118.018370">
        <ele>633.287</ele>
        <time>2018-12-28T02:01:59Z</time>
      </trkpt>
      <trkpt lat="35.285600" lon="-118.018140">
        <ele>633.152</ele>
        <time>2018-12-28T02:02:19Z</time>
      </trkpt>
      <trkpt lat="35.286070" lon="-118.017590">
        <ele>632.983</ele>
        <time>2018-12-28T02:02:39Z</time>
      </trkpt>
      <trkpt lat="35.286720" lon="-118.016800">
        <ele>633.025</ele>
        <time>2018-12-28T02:02:59Z</time>
      </trkpt>
      <trkpt lat="35.287460" lon="-118.015900">
        <ele>633.217</ele>
        <time>2018-12-28T02:03:19Z</time>
      </trkpt>
      <trkpt lat="35.287620" lon="-118.015670">
        <ele>633.508</ele>
        <time>2018-12-28T02:03:39Z</time>
      </trkpt>
      <trkpt lat="35.287790" lon="-118.015460">
        <ele>633.871</ele>
        <time>2018-12-28T02:03:59Z</time>
      </trkpt>
      <trkpt lat="35.288810" lon="-118.014160">
        <ele>634.529</ele>
        <time>2018-12-28T02:04:19Z</time>
      </trkpt>
      <trkpt lat="35.289540" lon="-118.013230">
        <ele>636.384</ele>
        <time>2018-12-28T02:04:39Z</time>
      </trkpt>
      <trkpt lat="35.290000" lon="-118.012660">
        <ele>638.944</ele>
        <time>2018-12-28T02:04:59Z</time>
      </trkpt>
      <trkpt lat="35.290740" lon="-118.011740">
        <ele>642.028</ele>
        <time>2018-12-28T02:05:19Z</time>
      </trkpt>
      <trkpt lat="35.290970" lon="-118.011480">
        <ele>642.782</ele>
        <time>2018-12-28T02:05:39Z</time>
      </trkpt>
      <trkpt lat="35.291200" lon="-118.011190">
        <ele>643.341</ele>
        <time>2018-12-28T02:05:59Z</time>
      </trkpt>
      <trkpt lat="35.294340" lon="-118.007410">
        <ele>645.816</ele>
        <time>2018-12-28T02:06:19Z</time>
      </trkpt>
      <trkpt lat="35.294590" lon="-118.007120">
        <ele>646.173</ele>
        <time>2018-12-28T02:06:39Z</time>
      </trkpt>
      <trkpt lat="35.294760" lon="-118.006900">
        <ele>646.385</ele>
        <time>2018-12-28T02:06:59Z</time>
      </trkpt>
      <trkpt lat="35.295210" lon="-118.006360">
        <ele>646.913</ele>
        <time>2018-12-28T02:07:19Z</time>
      </trkpt>
      <trkpt lat="35.295560" lon="-118.005940">
        <ele>647.308</ele>
        <time>2018-12-28T02:07:39Z</time>
      </trkpt>
      <trkpt lat="35.295650" lon="-118.005910">
        <ele>647.590</ele>
        <time>2018-12-28T02:07:59Z</time>
      </trkpt>
      <trkpt lat="35.295770" lon="-118.005770">
        <ele>647.698</ele>
        <time>2018-12-28T02:08:19Z</time>
      </trkpt>
      <trkpt lat="35.296020" lon="-118.005490">
        <ele>647.693</ele>
        <time>2018-12-28T02:08:39Z</time>
      </trkpt>
      <trkpt lat="35.296300" lon="-118.005160">
        <ele>647.853</ele>
        <time>2018-12-28T02:08:59Z</time>
      </trkpt>
      <trkpt lat="35.296360" lon="-118.005000">
        <ele>647.747</ele>
        <time>2018-12-28T02:09:19Z</time>
      </trkpt>
      <trkpt lat="35.297260" lon="-118.003950">
        <ele>648.521</ele>
        <time>2018-12-28T02:09:39Z</time>
      </trkpt>
      <trkpt lat="35.298630" lon="-118.002320">
        <ele>647.630</ele>
        <time>2018-12-28T02:09:59Z</time>
      </trkpt>
      <trkpt lat="35.298820" lon="-118.002080">
        <ele>647.355</ele>
        <time>2018-12-28T02:10:19Z</time>
      </trkpt>
      <trkpt lat="35.298890" lon="-118.002000">
        <ele>647.527</ele>
        <time>2018-12-28T02:10:39Z</time>
      </trkpt>
      <trkpt lat="35.299510" lon="-118.001270">
        <ele>647.868</ele>
        <time>2018-12-28T02:10:59Z</time>
      </trkpt>
      <trkpt lat="35.300030" lon="-118.000660">
        <ele>647.914</ele>
        <time>2018-12-28T02:11:19Z</time>
      </trkpt>
      <trkpt lat="35.300200" lon="-118.000450">
        <ele>648.208</ele>
        <time>2018-12-28T02:11:39Z</time>
      </trkpt>
      <trkpt lat="35.300500" lon="-118.000100">
        <ele>647.555</ele>
        <time>2018-12-28T02:11:59Z</time>
      </trkpt>
      <trkpt lat="35.301430" lon="-117.999000">
        <ele>641.363</ele>
        <time>2018-12-28T02:12:19Z</time>
      </trkpt>
      <trkpt lat="35.301760" lon="-117.998590">
        <ele>641.348</ele>
        <time>2018-12-28T02:12:39Z</time>
      </trkpt>
      <trkpt lat="35.302360" lon="-117.997880">
        <ele>640.538</ele>
        <time>2018-12-28T02:12:59Z</time>
      </trkpt>
      <trkpt lat="35.303330" lon="-117.996700">
        <ele>638.022</ele>
        <time>2018-12-28T02:13:19Z</time>
      </trkpt>
      <trkpt lat="35.304030" lon="-117.995860">
        <ele>639.276</ele>
        <time>2018-12-28T02:13:39Z</time>
      </trkpt>
      <trkpt lat="35.304640" lon="-117.995130">
        <ele>641.435</ele>
        <time>2018-12-28T02:13:59Z</time>
      </trkpt>
      <trkpt lat="35.305360" lon="-117.994260">
        <ele>642.670</ele>
        <time>2018-12-28T02:14:19Z</time>
      </trkpt>
      <trkpt lat="35.306150" lon="-117.993310">
        <ele>645.931</ele>
        <time>2018-12-28T02:14:39Z</time>
      </trkpt>
      <trkpt lat="35.307090" lon="-117.992170">
        <ele>650.161</ele>
        <time>2018-12-28T02:14:59Z</time>
      </trkpt>
      <trkpt lat="35.307730" lon="-117.991380">
        <ele>652.907</ele>
        <time>2018-12-28T02:15:19Z</time>
      </trkpt>
      <trkpt lat="35.308030" lon="-117.991040">
        <ele>652.608</ele>
        <time>2018-12-28T02:15:39Z</time>
      </trkpt>
      <trkpt lat="35.308220" lon="-117.990840">
        <ele>652.076</ele>
        <time>2018-12-28T02:15:59Z</time>
      </trkpt>
      <trkpt lat="35.308330" lon="-117.990720">
        <ele>652.084</ele>
        <time>2018-12-28T02:16:19Z</time>
      </trkpt>
      <trkpt lat="35.308710" lon="-117.990330">
        <ele>651.979</ele>
        <time>2018-12-28T02:16:39Z</time>
      </trkpt>
      <trkpt lat="35.309500" lon="-117.989550">
        <ele>651.079</ele>
        <time>2018-12-28T02:16:59Z</time>
      </trkpt>
      <trkpt lat="35.310010" lon="-117.989030">
        <ele>650.583</ele>
        <time>2018-12-28T02:17:19Z</time>
      </trkpt>
      <trkpt lat="35.311520" lon="-117.987510">
        <ele>647.547</ele>
        <time>2018-12-28T02:17:39Z</time>
      </trkpt>
      <trkpt lat="35.312170" lon="-117.986840">
        <ele>645.856</ele>
        <time>2018-12-28T02:17:59Z</time>
      </trkpt>
      <trkpt lat="35.312175" lon="-117.986838">
        <ele>645.831</ele>
        <time>2018-12-28T02:18:19Z</time>
      </trkpt>
      <trkpt lat="35.312220" lon="-117.986620">
        <ele>644.699</ele>
        <time>2018-12-28T02:18:39Z</time>
      </trkpt>
      <trkpt lat="35.312240" lon="-117.986530">
        <ele>644.207</ele>
        <time>2018-12-28T02:18:59Z</time>
      </trkpt>
      <trkpt lat="35.312260" lon="-117.986460">
        <ele>644.027</ele>
        <time>2018-12-28T02:19:19Z</time>
      </trkpt>
      <trkpt lat="35.312280" lon="-117.986410">
        <ele>643.908</ele>
        <time>2018-12-28T02:19:39Z</time>
      </trkpt>
      <trkpt lat="35.312360" lon="-117.986220">
        <ele>643.672</ele>
        <time>2018-12-28T02:19:59Z</time>
      </trkpt>
      <trkpt lat="35.312510" lon="-117.985900">
        <ele>643.430</ele>
        <time>2018-12-28T02:20:19Z</time>
      </trkpt>
      <trkpt lat="35.312640" lon="-117.985650">
        <ele>643.375</ele>
        <time>2018-12-28T02:20:39Z</time>
      </trkpt>
      <trkpt lat="35.312800" lon="-117.985330">
        <ele>642.995</ele>
        <time>2018-12-28T02:20:59Z</time>
      </trkpt>
      <trkpt lat="35.312960" lon="-117.985020">
        <ele>642.279</ele>
        <time>2018-12-28T02:21:19Z</time>
      </trkpt>
      <trkpt lat="35.313130" lon="-117.984680">
        <ele>641.063</ele>
        <time>2018-12-28T02:21:39Z</time>
      </trkpt>
      <trkpt lat="35.313240" lon="-117.984460">
        <ele>641.022</ele>
        <time>2018-12-28T02:21:59Z</time>
      </trkpt>
      <trkpt lat="35.313540" lon="-117.983840">
        <ele>642.177</ele>
        <time>2018-12-28T02:22:19Z</time>
      </trkpt>
      <trkpt lat="35.313870" lon="-117.983170">
        <ele>643.285</ele>
        <time>2018-12-28T02:22:39Z</time>
      </trkpt>
      <trkpt lat="35.314550" lon="-117.981800">
        <ele>642.289</ele>
        <time>2018-12-28T02:22:59Z</time>
      </trkpt>
      <trkpt lat="35.314920" lon="-117.981050">
        <ele>641.317</ele>
        <time>2018-12-28T02:23:19Z</time>
      </trkpt>
      <trkpt lat="35.315170" lon="-117.980540">
        <ele>642.908</ele>
        <time>2018-12-28T02:23:39Z</time>
      </trkpt>
      <trkpt lat="35.315280" lon="-117.980320">
        <ele>643.621</ele>
        <time>2018-12-28T02:23:59Z</time>
      </trkpt>
      <trkpt lat="35.315920" lon="-117.978990">
        <ele>646.219</ele>
        <time>2018-12-28T02:24:19Z</time>
      </trkpt>
      <trkpt lat="35.317210" lon="-117.976420">
        <ele>650.084</ele>
        <time>2018-12-28T02:24:39Z</time>
      </trkpt>
      <trkpt lat="35.317510" lon="-117.975800">
        <ele>650.444</ele>
        <time>2018-12-28T02:24:59Z</time>
      </trkpt>
      <trkpt lat="35.317590" lon="-117.975640">
        <ele>650.518</ele>
        <time>2018-12-28T02:25:19Z</time>
      </trkpt>
      <trkpt lat="35.317730" lon="-117.975340">
        <ele>650.682</ele>
        <time>2018-12-28T02:25:39Z</time>
      </trkpt>
      <trkpt lat="35.317980" lon="-117.974840">
        <ele>651.441</ele>
        <time>2018-12-28T02:25:59Z</time>
      </trkpt>
      <trkpt lat="35.318230" lon="-117.974320">
        <ele>652.346</ele>
        <time>2018-12-28T02:26:19Z</time>
      </trkpt>
      <trkpt lat="35.318380" lon="-117.974030">
        <ele>653.197</ele>
        <time>2018-12-28T02:26:39Z</time>
      </trkpt>
      <trkpt lat="35.318600" lon="-117.973600">
        <ele>656.323</ele>
        <time>2018-12-28T02:26:59Z</time>
      </trkpt>
      <trkpt lat="35.318740" lon="-117.973350">
        <ele>656.625</ele>
        <time>2018-12-28T02:27:19Z</time>
      </trkpt>
      <trkpt lat="35.318840" lon="-117.973170">
        <ele>656.508</ele>
        <time>2018-12-28T02:27:39Z</time>
      </trkpt>
      <trkpt lat="35.318960" lon="-117.972980">
        <ele>656.022</ele>
        <time>2018-12-28T02:27:59Z</time>
      </trkpt>
      <trkpt lat="35.319120" lon="-117.972750">
        <ele>655.390</ele>
        <time>2018-12-28T02:28:19Z</time>
      </trkpt>
      <trkpt lat="35.319270" lon="-117.972540">
        <ele>654.495</ele>
        <time>2018-12-28T02:28:39Z</time>
      </trkpt>
      <trkpt lat="35.319490" lon="-117.972220">
        <ele>652.265</ele>
        <time>2018-12-28T02:28:59Z</time>
      </trkpt>
      <trkpt lat="35.319710" lon="-117.971920">
        <ele>651.019</ele>
        <time>2018-12-28T02:29:19Z</time>
      </trkpt>
      <trkpt lat="35.320020" lon="-117.971480">
        <ele>650.413</ele>
        <time>2018-12-28T02:29:39Z</time>
      </trkpt>
      <trkpt lat="35.320210" lon="-117.971220">
        <ele>650.672</ele>
        <time>2018-12-28T02:29:59Z</time>
      </trkpt>
      <trkpt lat="35.320440" lon="-117.970880">
        <ele>650.877</ele>
        <time>2018-12-28T02:30:19Z</time>
      </trkpt>
      <trkpt lat="35.320720" lon="-117.970480">
        <ele>651.489</ele>
        <time>2018-12-28T02:30:39Z</time>
      </trkpt>
      <trkpt lat="35.320930" lon="-117.970180">
        <ele>652.006</ele>
        <time>2018-12-28T02:30:59Z</time>
      </trkpt>
      <trkpt lat="35.321150" lon="-117.969870">
        <ele>651.526</ele>
        <time>2018-12-28T02:31:19Z</time>
      </trkpt>
      <trkpt lat="35.321380" lon="-117.969540">
        <ele>651.808</ele>
        <time>2018-12-28T02:31:39Z</time>
      </trkpt>
      <trkpt lat="35.321600" lon="-117.969220">
        <ele>652.061</ele>
        <time>2018-12-28T02:31:59Z</time>
      </trkpt>
      <trkpt lat="35.321880" lon="-117.968820">
        <ele>653.459</ele>
        <time>2018-12-28T02:32:19Z</time>
      </trkpt>
      <trkpt lat="35.322290" lon="-117.968230">
        <ele>654.514</ele>
        <time>2018-12-28T02:32:39Z</time>
      </trkpt>
      <trkpt lat="35.322640" lon="-117.967750">
        <ele>655.374</ele>
        <time>2018-12-28T02:32:59Z</time>
      </trkpt>
      <trkpt lat="35.322940" lon="-117.967310">
        <ele>655.488</ele>
        <time>2018-12-28T02:33:19Z</time>
      </trkpt>
      <trkpt lat="35.323390" lon="-117.966660">
        <ele>656.852</ele>
        <time>2018-12-28T02:33:39Z</time>
      </trkpt>
      <trkpt lat="35.323850" lon="-117.965990">
        <ele>654.621</ele>
        <time>2018-12-28T02:33:59Z</time>
      </trkpt>
      <trkpt lat="35.324070" lon="-117.965670">
        <ele>654.036</ele>
        <time>2018-12-28T02:34:19Z</time>
      </trkpt>
      <trkpt lat="35.324740" lon="-117.964680">
        <ele>645.887</ele>
        <time>2018-12-28T02:34:39Z</time>
      </trkpt>
      <trkpt lat="35.324860" lon="-117.964530">
        <ele>645.442</ele>
        <time>2018-12-28T02:34:59Z</time>
      </trkpt>
      <trkpt lat="35.325150" lon="-117.964130">
        <ele>645.226</ele>
        <time>2018-12-28T02:35:19Z</time>
      </trkpt>
      <trkpt lat="35.325670" lon="-117.963380">
        <ele>646.108</ele>
        <time>2018-12-28T02:35:39Z</time>
      </trkpt>
      <trkpt lat="35.326090" lon="-117.962780">
        <ele>646.421</ele>
        <time>2018-12-28T02:35:59Z</time>
      </trkpt>
      <trkpt lat="35.326600" lon="-117.962050">
        <ele>647.289</ele>
        <time>2018-12-28T02:36:19Z</time>
      </trkpt>
      <trkpt lat="35.326880" lon="-117.961640">
        <ele>647.564</ele>
        <time>2018-12-28T02:36:39Z</time>
      </trkpt>
      <trkpt lat="35.327180" lon="-117.961220">
        <ele>647.944</ele>
        <time>2018-12-28T02:36:59Z</time>
      </trkpt>
      <trkpt lat="35.327670" lon="-117.960500">
        <ele>647.948</ele>
        <time>2018-12-28T02:37:19Z</time>
      </trkpt>
      <trkpt lat="35.327920" lon="-117.960140">
        <ele>648.472</ele>
        <time>2018-12-28T02:37:39Z</time>
      </trkpt>
      <trkpt lat="35.328120" lon="-117.959860">
        <ele>648.971</ele>
        <time>2018-12-28T02:37:59Z</time>
      </trkpt>
      <trkpt lat="35.328430" lon="-117.959400">
        <ele>649.386</ele>
        <time>2018-12-28T02:38:19Z</time>
      </trkpt>
      <trkpt lat="35.328700" lon="-117.959020">
        <ele>649.569</ele>
        <time>2018-12-28T02:38:39Z</time>
      </trkpt>
      <trkpt lat="35.328990" lon="-117.958610">
        <ele>649.504</ele>
        <time>2018-12-28T02:38:59Z</time>
      </trkpt>
      <trkpt lat="35.329260" lon="-117.958210">
        <ele>649.624</ele>
        <time>2018-12-28T02:39:19Z</time>
      </trkpt>
      <trkpt lat="35.329510" lon="-117.957850">
        <ele>649.508</ele>
        <time>2018-12-28T02:39:39Z</time>
      </trkpt>
      <trkpt lat="35.329800" lon="-117.957440">
        <ele>649.459</ele>
        <time>2018-12-28T02:39:59Z</time>
      </trkpt>
      <trkpt lat="35.330470" lon="-117.956480">
        <ele>649.077</ele>
        <time>2018-12-28T02:40:19Z</time>
      </trkpt>
      <trkpt lat="35.330760" lon="-117.956060">
        <ele>648.792</ele>
        <time>2018-12-28T02:40:39Z</time>
      </trkpt>
      <trkpt lat="35.330940" lon="-117.955820">
        <ele>648.542</ele>
        <time>2018-12-28T02:40:59Z</time>
      </trkpt>
      <trkpt lat="35.331090" lon="-117.955600">
        <ele>648.366</ele>
        <time>2018-12-28T02:41:19Z</time>
      </trkpt>
      <trkpt lat="35.331320" lon="-117.955270">
        <ele>647.970</ele>
        <time>2018-12-28T02:41:39Z</time>
      </trkpt>
      <trkpt lat="35.331440" lon="-117.955100">
        <ele>647.719</ele>
        <time>2018-12-28T02:41:59Z</time>
      </trkpt>
      <trkpt lat="35.331670" lon="-117.954800">
        <ele>647.394</ele>
        <time>2018-12-28T02:42:19Z</time>
      </trkpt>
      <trkpt lat="35.331930" lon="-117.954410">
        <ele>647.064</ele>
        <time>2018-12-28T02:42:39Z</time>
      </trkpt>
      <trkpt lat="35.332190" lon="-117.954030">
        <ele>645.806</ele>
        <time>2018-12-28T02:42:59Z</time>
      </trkpt>
      <trkpt lat="35.332490" lon="-117.953590">
        <ele>645.216</ele>
        <time>2018-12-28T02:43:19Z</time>
      </trkpt>
      <trkpt lat="35.332750" lon="-117.953220">
        <ele>645.708</ele>
        <time>2018-12-28T02:43:39Z</time>
      </trkpt>
      <trkpt lat="35.333010" lon="-117.952830">
        <ele>647.189</ele>
        <time>2018-12-28T02:43:59Z</time>
      </trkpt>
      <trkpt lat="35.333400" lon="-117.952260">
        <ele>643.547</ele>
        <time>2018-12-28T02:44:19Z</time>
      </trkpt>
      <trkpt lat="35.333530" lon="-117.952080">
        <ele>641.992</ele>
        <time>2018-12-28T02:44:39Z</time>
      </trkpt>
      <trkpt lat="35.333650" lon="-117.951890">
        <ele>640.832</ele>
        <time>2018-12-28T02:44:59Z</time>
      </trkpt>
      <trkpt lat="35.333760" lon="-117.951720">
        <ele>640.576</ele>
        <time>2018-12-28T02:45:19Z</time>
      </trkpt>
      <trkpt lat="35.333870" lon="-117.951550">
        <ele>640.630</ele>
        <time>2018-12-28T02:45:39Z</time>
      </trkpt>
      <trkpt lat="35.334000" lon="-117.951330">
        <ele>640.599</ele>
        <time>2018-12-28T02:45:59Z</time>
      </trkpt>
      <trkpt lat="35.334080" lon="-117.951190">
        <ele>640.564</ele>
        <time>2018-12-28T02:46:19Z</time>
      </trkpt>
      <trkpt lat="35.334160" lon="-117.951030">
        <ele>640.419</ele>
        <time>2018-12-28T02:46:39Z</time>
      </trkpt>
      <trkpt lat="35.334280" lon="-117.950800">
        <ele>640.109</ele>
        <time>2018-12-28T02:46:59Z</time>
      </trkpt>
      <trkpt lat="35.334460" lon="-117.950460">
        <ele>639.819</ele>
        <time>2018-12-28T02:47:19Z</time>
      </trkpt>
      <trkpt lat="35.334600" lon="-117.950200">
        <ele>639.308</ele>
        <time>2018-12-28T02:47:39Z</time>
      </trkpt>
      <trkpt lat="35.334820" lon="-117.949770">
        <ele>638.584</ele>
        <time>2018-12-28T02:47:59Z</time>
      </trkpt>
      <trkpt lat="35.335100" lon="-117.949220">
        <ele>637.812</ele>
        <time>2018-12-28T02:48:19Z</time>
      </trkpt>
      <trkpt lat="35.335370" lon="-117.948730">
        <ele>637.037</ele>
        <time>2018-12-28T02:48:39Z</time>
      </trkpt>
      <trkpt lat="35.335600" lon="-117.948300">
        <ele>637.137</ele>
        <time>2018-12-28T02:48:59Z</time>
      </trkpt>
      <trkpt lat="35.335730" lon="-117.948040">
        <ele>637.581</ele>
        <time>2018-12-28T02:49:19Z</time>
      </trkpt>
      <trkpt lat="35.335960" lon="-117.947590">
        <ele>637.995</ele>
        <time>2018-12-28T02:49:39Z</time>
      </trkpt>
      <trkpt lat="35.336190" lon="-117.947150">
        <ele>638.544</ele>
        <time>2018-12-28T02:49:59Z</time>
      </trkpt>
      <trkpt lat="35.336500" lon="-117.946540">
        <ele>639.139</ele>
        <time>2018-12-28T02:50:19Z</time>
      </trkpt>
      <trkpt lat="35.336710" lon="-117.946140">
        <ele>638.913</ele>
        <time>2018-12-28T02:50:39Z</time>
      </trkpt>
      <trkpt lat="35.336940" lon="-117.945700">
        <ele>637.943</ele>
        <time>2018-12-28T02:50:59Z</time>
      </trkpt>
      <trkpt lat="35.337320" lon="-117.945010">
        <ele>634.507</ele>
        <time>2018-12-28T02:51:19Z</time>
      </trkpt>
      <trkpt lat="35.337800" lon="-117.944060">
        <ele>630.908</ele>
        <time>2018-12-28T02:51:39Z</time>
      </trkpt>
      <trkpt lat="35.338090" lon="-117.943500">
        <ele>630.384</ele>
        <time>2018-12-28T02:51:59Z</time>
      </trkpt>
      <trkpt lat="35.338310" lon="-117.943070">
        <ele>630.282</ele>
        <time>2018-12-28T02:52:19Z</time>
      </trkpt>
      <trkpt lat="35.338580" lon="-117.942540">
        <ele>630.167</ele>
        <time>2018-12-28T02:52:39Z</time>
      </trkpt>
      <trkpt lat="35.338990" lon="-117.941760">
        <ele>629.687</ele>
        <time>2018-12-28T02:52:59Z</time>
      </trkpt>
      <trkpt lat="35.339240" lon="-117.941290">
        <ele>629.341</ele>
        <time>2018-12-28T02:53:19Z</time>
      </trkpt>
      <trkpt lat="35.339700" lon="-117.940400">
        <ele>629.115</ele>
        <time>2018-12-28T02:53:39Z</time>
      </trkpt>
      <trkpt lat="35.339810" lon="-117.940190">
        <ele>628.734</ele>
        <time>2018-12-28T02:53:59Z</time>
      </trkpt>
      <trkpt lat="35.340090" lon="-117.939670">
        <ele>628.289</ele>
        <time>2018-12-28T02:54:19Z</time>
      </trkpt>
      <trkpt lat="35.340660" lon="-117.938590">
        <ele>627.649</ele>
        <time>2018-12-28T02:54:39Z</time>
      </trkpt>
      <trkpt lat="35.341320" lon="-117.937320">
        <ele>622.602</ele>
        <time>2018-12-28T02:54:59Z</time>
      </trkpt>
      <trkpt lat="35.341650" lon="-117.936690">
        <ele>621.722</ele>
        <time>2018-12-28T02:55:19Z</time>
      </trkpt>
      <trkpt lat="35.342110" lon="-117.935820">
        <ele>617.008</ele>
        <time>2018-12-28T02:55:39Z</time>
      </trkpt>
      <trkpt lat="35.343820" lon="-117.932540">
        <ele>606.527</ele>
        <time>2018-12-28T02:55:59Z</time>
      </trkpt>
      <trkpt lat="35.344300" lon="-117.931630">
        <ele>604.335</ele>
        <time>2018-12-28T02:56:19Z</time>
      </trkpt>
      <trkpt lat="35.345060" lon="-117.930160">
        <ele>602.190</ele>
        <time>2018-12-28T02:56:39Z</time>
      </trkpt>
      <trkpt lat="35.345670" lon="-117.928990">
        <ele>600.070</ele>
        <time>2018-12-28T02:56:59Z</time>
      </trkpt>
      <trkpt lat="35.345840" lon="-117.928670">
        <ele>598.574</ele>
        <time>2018-12-28T02:57:19Z</time>
      </trkpt>
      <trkpt lat="35.345970" lon="-117.928430">
        <ele>598.138</ele>
        <time>2018-12-28T02:57:39Z</time>
      </trkpt>
      <trkpt lat="35.346490" lon="-117.927450">
        <ele>596.337</ele>
        <time>2018-12-28T02:57:59Z</time>
      </trkpt>
      <trkpt lat="35.347430" lon="-117.925650">
        <ele>592.272</ele>
        <time>2018-12-28T02:58:19Z</time>
      </trkpt>
      <trkpt lat="35.347740" lon="-117.925050">
        <ele>592.095</ele>
        <time>2018-12-28T02:58:39Z</time>
      </trkpt>
      <trkpt lat="35.347830" lon="-117.924870">
        <ele>592.049</ele>
        <time>2018-12-28T02:58:59Z</time>
      </trkpt>
      <trkpt lat="35.348120" lon="-117.924320">
        <ele>591.123</ele>
        <time>2018-12-28T02:59:19Z</time>
      </trkpt>
      <trkpt lat="35.348290" lon="-117.923990">
        <ele>590.908</ele>
        <time>2018-12-28T02:59:39Z</time>
      </trkpt>
      <trkpt lat="35.348420" lon="-117.923720">
        <ele>590.722</ele>
        <time>2018-12-28T02:59:59Z</time>
      </trkpt>
      <trkpt lat="35.348700" lon="-117.923200">
        <ele>590.260</ele>
        <time>2018-12-28T03:00:19Z</time>
      </trkpt>
      <trkpt lat="35.348890" lon="-117.922820">
        <ele>589.865</ele>
        <time>2018-12-28T03:00:39Z</time>
      </trkpt>
      <trkpt lat="35.349150" lon="-117.922320">
        <ele>589.485</ele>
        <time>2018-12-28T03:00:59Z</time>
      </trkpt>
      <trkpt lat="35.349470" lon="-117.921720">
        <ele>588.999</ele>
        <time>2018-12-28T03:01:19Z</time>
      </trkpt>
      <trkpt lat="35.349710" lon="-117.921250">
        <ele>588.573</ele>
        <time>2018-12-28T03:01:39Z</time>
      </trkpt>
      <trkpt lat="35.350490" lon="-117.919750">
        <ele>587.882</ele>
        <time>2018-12-28T03:01:59Z</time>
      </trkpt>
      <trkpt lat="35.350630" lon="-117.919490">
        <ele>588.017</ele>
        <time>2018-12-28T03:02:19Z</time>
      </trkpt>
      <trkpt lat="35.351100" lon="-117.918590">
        <ele>589.012</ele>
        <time>2018-12-28T03:02:39Z</time>
      </trkpt>
      <trkpt lat="35.351470" lon="-117.917870">
        <ele>590.132</ele>
        <time>2018-12-28T03:02:59Z</time>
      </trkpt>
      <trkpt lat="35.352090" lon="-117.916690">
        <ele>591.805</ele>
        <time>2018-12-28T03:03:19Z</time>
      </trkpt>
      <trkpt lat="35.352700" lon="-117.915530">
        <ele>593.108</ele>
        <time>2018-12-28T03:03:39Z</time>
      </trkpt>
      <trkpt lat="35.353090" lon="-117.914780">
        <ele>594.364</ele>
        <time>2018-12-28T03:03:59Z</time>
      </trkpt>
      <trkpt lat="35.353570" lon="-117.913850">
        <ele>595.682</ele>
        <time>2018-12-28T03:04:19Z</time>
      </trkpt>
      <trkpt lat="35.353670" lon="-117.913660">
        <ele>595.827</ele>
        <time>2018-12-28T03:04:39Z</time>
      </trkpt>
      <trkpt lat="35.354050" lon="-117.912940">
        <ele>597.687</ele>
        <time>2018-12-28T03:04:59Z</time>
      </trkpt>
      <trkpt lat="35.354300" lon="-117.912460">
        <ele>598.361</ele>
        <time>2018-12-28T03:05:19Z</time>
      </trkpt>
      <trkpt lat="35.354740" lon="-117.911630">
        <ele>599.155</ele>
        <time>2018-12-28T03:05:39Z</time>
      </trkpt>
      <trkpt lat="35.354990" lon="-117.911130">
        <ele>600.094</ele>
        <time>2018-12-28T03:05:59Z</time>
      </trkpt>
      <trkpt lat="35.355320" lon="-117.910510">
        <ele>601.119</ele>
        <time>2018-12-28T03:06:19Z</time>
      </trkpt>
      <trkpt lat="35.355550" lon="-117.910070">
        <ele>601.867</ele>
        <time>2018-12-28T03:06:39Z</time>
      </trkpt>
      <trkpt lat="35.355930" lon="-117.909340">
        <ele>603.081</ele>
        <time>2018-12-28T03:06:59Z</time>
      </trkpt>
      <trkpt lat="35.356130" lon="-117.908970">
        <ele>603.719</ele>
        <time>2018-12-28T03:07:19Z</time>
      </trkpt>
      <trkpt lat="35.356340" lon="-117.908570">
        <ele>604.508</ele>
        <time>2018-12-28T03:07:39Z</time>
      </trkpt>
      <trkpt lat="35.356520" lon="-117.908200">
        <ele>605.339</ele>
        <time>2018-12-28T03:07:59Z</time>
      </trkpt>
      <trkpt lat="35.356660" lon="-117.907920">
        <ele>606.087</ele>
        <time>2018-12-28T03:08:19Z</time>
      </trkpt>
      <trkpt lat="35.356800" lon="-117.907660">
        <ele>606.882</ele>
        <time>2018-12-28T03:08:39Z</time>
      </trkpt>
      <trkpt lat="35.356880" lon="-117.907510">
        <ele>607.542</ele>
        <time>2018-12-28T03:08:59Z</time>
      </trkpt>
      <trkpt lat="35.357040" lon="-117.907220">
        <ele>608.546</ele>
        <time>2018-12-28T03:09:19Z</time>
      </trkpt>
      <trkpt lat="35.357180" lon="-117.907000">
        <ele>608.010</ele>
        <time>2018-12-28T03:09:39Z</time>
      </trkpt>
      <trkpt lat="35.357270" lon="-117.906810">
        <ele>606.959</ele>
        <time>2018-12-28T03:09:59Z</time>
      </trkpt>
      <trkpt lat="35.357480" lon="-117.906420">
        <ele>607.544</ele>
        <time>2018-12-28T03:10:19Z</time>
      </trkpt>
      <trkpt lat="35.358430" lon="-117.904590">
        <ele>609.254</ele>
        <time>2018-12-28T03:10:39Z</time>
      </trkpt>
      <trkpt lat="35.358700" lon="-117.904070">
        <ele>609.556</ele>
        <time>2018-12-28T03:10:59Z</time>
      </trkpt>
      <trkpt lat="35.359050" lon="-117.903390">
        <ele>609.811</ele>
        <time>2018-12-28T03:11:19Z</time>
      </trkpt>
      <trkpt lat="35.359580" lon="-117.902360">
        <ele>610.408</ele>
        <time>2018-12-28T03:11:39Z</time>
      </trkpt>
      <trkpt lat="35.359920" lon="-117.901730">
        <ele>610.518</ele>
        <time>2018-12-28T03:11:59Z</time>
      </trkpt>
      <trkpt lat="35.360440" lon="-117.900730">
        <ele>610.576</ele>
        <time>2018-12-28T03:12:19Z</time>
      </trkpt>
      <trkpt lat="35.360540" lon="-117.900540">
        <ele>610.521</ele>
        <time>2018-12-28T03:12:39Z</time>
      </trkpt>
      <trkpt lat="35.360960" lon="-117.899740">
        <ele>610.261</ele>
        <time>2018-12-28T03:12:59Z</time>
      </trkpt>
      <trkpt lat="35.361640" lon="-117.898440">
        <ele>608.975</ele>
        <time>2018-12-28T03:13:19Z</time>
      </trkpt>
      <trkpt lat="35.361990" lon="-117.897770">
        <ele>608.049</ele>
        <time>2018-12-28T03:13:39Z</time>
      </trkpt>
      <trkpt lat="35.362130" lon="-117.897490">
        <ele>606.938</ele>
        <time>2018-12-28T03:13:59Z</time>
      </trkpt>
      <trkpt lat="35.362710" lon="-117.896390">
        <ele>604.883</ele>
        <time>2018-12-28T03:14:19Z</time>
      </trkpt>
      <trkpt lat="35.362830" lon="-117.896150">
        <ele>604.382</ele>
        <time>2018-12-28T03:14:39Z</time>
      </trkpt>
      <trkpt lat="35.363260" lon="-117.895340">
        <ele>604.043</ele>
        <time>2018-12-28T03:14:59Z</time>
      </trkpt>
      <trkpt lat="35.363320" lon="-117.895230">
        <ele>603.917</ele>
        <time>2018-12-28T03:15:19Z</time>
      </trkpt>
      <trkpt lat="35.363540" lon="-117.894790">
        <ele>602.908</ele>
        <time>2018-12-28T03:15:39Z</time>
      </trkpt>
      <trkpt lat="35.363820" lon="-117.894270">
        <ele>601.821</ele>
        <time>2018-12-28T03:15:59Z</time>
      </trkpt>
      <trkpt lat="35.364070" lon="-117.893800">
        <ele>601.059</ele>
        <time>2018-12-28T03:16:19Z</time>
      </trkpt>
      <trkpt lat="35.364160" lon="-117.893620">
        <ele>600.684</ele>
        <time>2018-12-28T03:16:39Z</time>
      </trkpt>
      <trkpt lat="35.364320" lon="-117.893310">
        <ele>599.864</ele>
        <time>2018-12-28T03:16:59Z</time>
      </trkpt>
      <trkpt lat="35.364600" lon="-117.892770">
        <ele>598.248</ele>
        <time>2018-12-28T03:17:19Z</time>
      </trkpt>
      <trkpt lat="35.364980" lon="-117.892050">
        <ele>597.762</ele>
        <time>2018-12-28T03:17:39Z</time>
      </trkpt>
      <trkpt lat="35.365330" lon="-117.891390">
        <ele>596.171</ele>
        <time>2018-12-28T03:17:59Z</time>
      </trkpt>
      <trkpt lat="35.365650" lon="-117.890770">
        <ele>594.096</ele>
        <time>2018-12-28T03:18:19Z</time>
      </trkpt>
      <trkpt lat="35.366000" lon="-117.890100">
        <ele>592.191</ele>
        <time>2018-12-28T03:18:39Z</time>
      </trkpt>
      <trkpt lat="35.366340" lon="-117.889440">
        <ele>592.181</ele>
        <time>2018-12-28T03:18:59Z</time>
      </trkpt>
      <trkpt lat="35.366800" lon="-117.888560">
        <ele>590.619</ele>
        <time>2018-12-28T03:19:19Z</time>
      </trkpt>
      <trkpt lat="35.367430" lon="-117.887340">
        <ele>587.308</ele>
        <time>2018-12-28T03:19:39Z</time>
      </trkpt>
      <trkpt lat="35.367590" lon="-117.887030">
        <ele>587.232</ele>
        <time>2018-12-28T03:19:59Z</time>
      </trkpt>
      <trkpt lat="35.367830" lon="-117.886560">
        <ele>587.670</ele>
        <time>2018-12-28T03:20:19Z</time>
      </trkpt>
      <trkpt lat="35.368470" lon="-117.885330">
        <ele>586.165</ele>
        <time>2018-12-28T03:20:39Z</time>
      </trkpt>
      <trkpt lat="35.368940" lon="-117.884440">
        <ele>586.255</ele>
        <time>2018-12-28T03:20:59Z</time>
      </trkpt>
      <trkpt lat="35.369330" lon="-117.883700">
        <ele>585.769</ele>
        <time>2018-12-28T03:21:19Z</time>
      </trkpt>
      <trkpt lat="35.369700" lon="-117.882990">
        <ele>584.973</ele>
        <time>2018-12-28T03:21:39Z</time>
      </trkpt>
      <trkpt lat="35.369890" lon="-117.882630">
        <ele>584.652</ele>
        <time>2018-12-28T03:21:59Z</time>
      </trkpt>
      <trkpt lat="35.370120" lon="-117.882180">
        <ele>584.877</ele>
        <time>2018-12-28T03:22:19Z</time>
      </trkpt>
      <trkpt lat="35.370690" lon="-117.881110">
        <ele>584.784</ele>
        <time>2018-12-28T03:22:39Z</time>
      </trkpt>
      <trkpt lat="35.370890" lon="-117.880720">
        <ele>585.507</ele>
        <time>2018-12-28T03:22:59Z</time>
      </trkpt>
      <trkpt lat="35.371290" lon="-117.879950">
        <ele>589.217</ele>
        <time>2018-12-28T03:23:19Z</time>
      </trkpt>
      <trkpt lat="35.371490" lon="-117.879550">
        <ele>590.508</ele>
        <time>2018-12-28T03:23:39Z</time>
      </trkpt>
      <trkpt lat="35.372320" lon="-117.877970">
        <ele>593.561</ele>
        <time>2018-12-28T03:23:59Z</time>
      </trkpt>
      <trkpt lat="35.372790" lon="-117.877080">
        <ele>594.289</ele>
        <time>2018-12-28T03:24:19Z</time>
      </trkpt>
      <trkpt lat="35.373480" lon="-117.875740">
        <ele>595.884</ele>
        <time>2018-12-28T03:24:39Z</time>
      </trkpt>
      <trkpt lat="35.374390" lon="-117.874010">
        <ele>594.384</ele>
        <time>2018-12-28T03:24:59Z</time>
      </trkpt>
      <trkpt lat="35.374460" lon="-117.873880">
        <ele>594.278</ele>
        <time>2018-12-28T03:25:19Z</time>
      </trkpt>
      <trkpt lat="35.374520" lon="-117.873760">
        <ele>594.142</ele>
        <time>2018-12-28T03:25:39Z</time>
      </trkpt>
      <trkpt lat="35.374570" lon="-117.873650">
        <ele>593.931</ele>
        <time>2018-12-28T03:25:59Z</time>
      </trkpt>
      <trkpt lat="35.374650" lon="-117.873490">
        <ele>593.246</ele>
        <time>2018-12-28T03:26:19Z</time>
      </trkpt>
      <trkpt lat="35.374730" lon="-117.873320">
        <ele>592.767</ele>
        <time>2018-12-28T03:26:39Z</time>
      </trkpt>
      <trkpt lat="35.374930" lon="-117.872880">
        <ele>592.681</ele>
        <time>2018-12-28T03:26:59Z</time>
      </trkpt>
      <trkpt lat="35.375090" lon="-117.872530">
        <ele>592.119</ele>
        <time>2018-12-28T03:27:19Z</time>
      </trkpt>
      <trkpt lat="35.375170" lon="-117.872360">
        <ele>591.808</ele>
        <time>2018-12-28T03:27:39Z</time>
      </trkpt>
      <trkpt lat="35.375310" lon="-117.872020">
        <ele>591.719</ele>
        <time>2018-12-28T03:27:59Z</time>
      </trkpt>
      <trkpt lat="35.375360" lon="-117.871870">
        <ele>591.527</ele>
        <time>2018-12-28T03:28:19Z</time>
      </trkpt>
      <trkpt lat="35.375490" lon="-117.871530">
        <ele>592.452</ele>
        <time>2018-12-28T03:28:39Z</time>
      </trkpt>
      <trkpt lat="35.375610" lon="-117.871180">
        <ele>593.262</ele>
        <time>2018-12-28T03:28:59Z</time>
      </trkpt>
      <trkpt lat="35.375760" lon="-117.870740">
        <ele>594.286</ele>
        <time>2018-12-28T03:29:19Z</time>
      </trkpt>
      <trkpt lat="35.375840" lon="-117.870490">
        <ele>594.840</ele>
        <time>2018-12-28T03:29:39Z</time>
      </trkpt>
      <trkpt lat="35.375920" lon="-117.870220">
        <ele>595.319</ele>
        <time>2018-12-28T03:29:59Z</time>
      </trkpt>
      <trkpt lat="35.375950" lon="-117.870130">
        <ele>595.514</ele>
        <time>2018-12-28T03:30:19Z</time>
      </trkpt>
      <trkpt lat="35.376010" lon="-117.869930">
        <ele>595.898</ele>
        <time>2018-12-28T03:30:39Z</time>
      </trkpt>
      <trkpt lat="35.376070" lon="-117.869730">
        <ele>596.115</ele>
        <time>2018-12-28T03:30:59Z</time>
      </trkpt>
      <trkpt lat="35.376140" lon="-117.869500">
        <ele>596.526</ele>
        <time>2018-12-28T03:31:19Z</time>
      </trkpt>
      <trkpt lat="35.376170" lon="-117.869370">
        <ele>596.808</ele>
        <time>2018-12-28T03:31:39Z</time>
      </trkpt>
      <trkpt lat="35.376230" lon="-117.869150">
        <ele>597.482</ele>
        <time>2018-12-28T03:31:59Z</time>
      </trkpt>
      <trkpt lat="35.376260" lon="-117.868990">
        <ele>597.950</ele>
        <time>2018-12-28T03:32:19Z</time>
      </trkpt>
      <trkpt lat="35.376360" lon="-117.868590">
        <ele>600.185</ele>
        <time>2018-12-28T03:32:39Z</time>
      </trkpt>
      <trkpt lat="35.376490" lon="-117.868030">
        <ele>603.165</ele>
        <time>2018-12-28T03:32:59Z</time>
      </trkpt>
      <trkpt lat="35.376580" lon="-117.867600">
        <ele>604.949</ele>
        <time>2018-12-28T03:33:19Z</time>
      </trkpt>
      <trkpt lat="35.376700" lon="-117.867110">
        <ele>606.593</ele>
        <time>2018-12-28T03:33:39Z</time>
      </trkpt>
      <trkpt lat="35.376780" lon="-117.866750">
        <ele>607.642</ele>
        <time>2018-12-28T03:33:59Z</time>
      </trkpt>
      <trkpt lat="35.376830" lon="-117.866540">
        <ele>608.617</ele>
        <time>2018-12-28T03:34:19Z</time>
      </trkpt>
      <trkpt lat="35.376900" lon="-117.866250">
        <ele>608.351</ele>
        <time>2018-12-28T03:34:39Z</time>
      </trkpt>
      <trkpt lat="35.377110" lon="-117.865360">
        <ele>608.601</ele>
        <time>2018-12-28T03:34:59Z</time>
      </trkpt>
      <trkpt lat="35.377260" lon="-117.864740">
        <ele>607.711</ele>
        <time>2018-12-28T03:35:19Z</time>
      </trkpt>
      <trkpt lat="35.377420" lon="-117.864060">
        <ele>606.608</ele>
        <time>2018-12-28T03:35:39Z</time>
      </trkpt>
      <trkpt lat="35.377620" lon="-117.863240">
        <ele>604.878</ele>
        <time>2018-12-28T03:35:59Z</time>
      </trkpt>
      <trkpt lat="35.377700" lon="-117.862900">
        <ele>604.136</ele>
        <time>2018-12-28T03:36:19Z</time>
      </trkpt>
      <trkpt lat="35.377730" lon="-117.862740">
        <ele>603.741</ele>
        <time>2018-12-28T03:36:39Z</time>
      </trkpt>
      <trkpt lat="35.377770" lon="-117.862600">
        <ele>603.581</ele>
        <time>2018-12-28T03:36:59Z</time>
      </trkpt>
      <trkpt lat="35.377830" lon="-117.862320">
        <ele>602.975</ele>
        <time>2018-12-28T03:37:19Z</time>
      </trkpt>
      <trkpt lat="35.377870" lon="-117.862190">
        <ele>602.789</ele>
        <time>2018-12-28T03:37:39Z</time>
      </trkpt>
      <trkpt lat="35.377970" lon="-117.861740">
        <ele>601.758</ele>
        <time>2018-12-28T03:37:59Z</time>
      </trkpt>
      <trkpt lat="35.378090" lon="-117.861200">
        <ele>600.553</ele>
        <time>2018-12-28T03:38:19Z</time>
      </trkpt>
      <trkpt lat="35.378180" lon="-117.860820">
        <ele>599.675</ele>
        <time>2018-12-28T03:38:39Z</time>
      </trkpt>
      <trkpt lat="35.378310" lon="-117.860280">
        <ele>598.528</ele>
        <time>2018-12-28T03:38:59Z</time>
      </trkpt>
      <trkpt lat="35.378340" lon="-117.860130">
        <ele>598.020</ele>
        <time>2018-12-28T03:39:19Z</time>
      </trkpt>
      <trkpt lat="35.378450" lon="-117.859700">
        <ele>597.308</ele>
        <time>2018-12-28T03:39:39Z</time>
      </trkpt>
      <trkpt lat="35.378680" lon="-117.858740">
        <ele>594.720</ele>
        <time>2018-12-28T03:39:59Z</time>
      </trkpt>
      <trkpt lat="35.378770" lon="-117.858360">
        <ele>593.698</ele>
        <time>2018-12-28T03:40:19Z</time>
      </trkpt>
      <trkpt lat="35.378880" lon="-117.857860">
        <ele>592.933</ele>
        <time>2018-12-28T03:40:39Z</time>
      </trkpt>
      <trkpt lat="35.378970" lon="-117.857490">
        <ele>592.923</ele>
        <time>2018-12-28T03:40:59Z</time>
      </trkpt>
      <trkpt lat="35.379140" lon="-117.856750">
        <ele>593.037</ele>
        <time>2018-12-28T03:41:19Z</time>
      </trkpt>
      <trkpt lat="35.379420" lon="-117.855540">
        <ele>594.261</ele>
        <time>2018-12-28T03:41:39Z</time>
      </trkpt>
      <trkpt lat="35.379600" lon="-117.854770">
        <ele>594.540</ele>
        <time>2018-12-28T03:41:59Z</time>
      </trkpt>
      <trkpt lat="35.379970" lon="-117.853210">
        <ele>596.655</ele>
        <time>2018-12-28T03:42:19Z</time>
      </trkpt>
      <trkpt lat="35.380050" lon="-117.852840">
        <ele>597.482</ele>
        <time>2018-12-28T03:42:39Z</time>
      </trkpt>
      <trkpt lat="35.380130" lon="-117.852530">
        <ele>598.343</ele>
        <time>2018-12-28T03:42:59Z</time>
      </trkpt>
      <trkpt lat="35.380260" lon="-117.851930">
        <ele>599.117</ele>
        <time>2018-12-28T03:43:19Z</time>
      </trkpt>
      <trkpt lat="35.380380" lon="-117.851420">
        <ele>600.008</ele>
        <time>2018-12-28T03:43:39Z</time>
      </trkpt>
      <trkpt lat="35.380550" lon="-117.850740">
        <ele>601.171</ele>
        <time>2018-12-28T03:43:59Z</time>
      </trkpt>
      <trkpt lat="35.380710" lon="-117.850020">
        <ele>601.939</ele>
        <time>2018-12-28T03:44:19Z</time>
      </trkpt>
      <trkpt lat="35.381390" lon="-117.847130">
        <ele>603.944</ele>
        <time>2018-12-28T03:44:39Z</time>
      </trkpt>
      <trkpt lat="35.381470" lon="-117.846760">
        <ele>603.764</ele>
        <time>2018-12-28T03:44:59Z</time>
      </trkpt>
      <trkpt lat="35.381540" lon="-117.846500">
        <ele>603.598</ele>
        <time>2018-12-28T03:45:19Z</time>
      </trkpt>
      <trkpt lat="35.381700" lon="-117.845850">
        <ele>602.782</ele>
        <time>2018-12-28T03:45:39Z</time>
      </trkpt>
      <trkpt lat="35.381840" lon="-117.845210">
        <ele>601.861</ele>
        <time>2018-12-28T03:45:59Z</time>
      </trkpt>
      <trkpt lat="35.381890" lon="-117.845030">
        <ele>601.746</ele>
        <time>2018-12-28T03:46:19Z</time>
      </trkpt>
      <trkpt lat="35.382220" lon="-117.843650">
        <ele>601.288</ele>
        <time>2018-12-28T03:46:39Z</time>
      </trkpt>
      <trkpt lat="35.382310" lon="-117.843290">
        <ele>600.824</ele>
        <time>2018-12-28T03:46:59Z</time>
      </trkpt>
      <trkpt lat="35.382530" lon="-117.842340">
        <ele>599.326</ele>
        <time>2018-12-28T03:47:19Z</time>
      </trkpt>
      <trkpt lat="35.382640" lon="-117.841870">
        <ele>598.208</ele>
        <time>2018-12-28T03:47:39Z</time>
      </trkpt>
      <trkpt lat="35.382830" lon="-117.841090">
        <ele>597.331</ele>
        <time>2018-12-28T03:47:59Z</time>
      </trkpt>
      <trkpt lat="35.382970" lon="-117.840450">
        <ele>596.669</ele>
        <time>2018-12-28T03:48:19Z</time>
      </trkpt>
      <trkpt lat="35.383130" lon="-117.839810">
        <ele>596.434</ele>
        <time>2018-12-28T03:48:39Z</time>
      </trkpt>
      <trkpt lat="35.383320" lon="-117.838980">
        <ele>595.944</ele>
        <time>2018-12-28T03:48:59Z</time>
      </trkpt>
      <trkpt lat="35.383470" lon="-117.838350">
        <ele>595.428</ele>
        <time>2018-12-28T03:49:19Z</time>
      </trkpt>
      <trkpt lat="35.383690" lon="-117.837390">
        <ele>595.792</ele>
        <time>2018-12-28T03:49:39Z</time>
      </trkpt>
      <trkpt lat="35.384060" lon="-117.835830">
        <ele>596.391</ele>
        <time>2018-12-28T03:49:59Z</time>
      </trkpt>
      <trkpt lat="35.384250" lon="-117.835030">
        <ele>596.726</ele>
        <time>2018-12-28T03:50:19Z</time>
      </trkpt>
      <trkpt lat="35.384570" lon="-117.833670">
        <ele>597.624</ele>
        <time>2018-12-28T03:50:39Z</time>
      </trkpt>
      <trkpt lat="35.385050" lon="-117.831620">
        <ele>599.204</ele>
        <time>2018-12-28T03:50:59Z</time>
      </trkpt>
      <trkpt lat="35.385930" lon="-117.827900">
        <ele>602.614</ele>
        <time>2018-12-28T03:51:19Z</time>
      </trkpt>
      <trkpt lat="35.386130" lon="-117.827080">
        <ele>603.608</ele>
        <time>2018-12-28T03:51:39Z</time>
      </trkpt>
      <trkpt lat="35.386360" lon="-117.826090">
        <ele>604.975</ele>
        <time>2018-12-28T03:51:59Z</time>
      </trkpt>
      <trkpt lat="35.386490" lon="-117.825520">
        <ele>605.763</ele>
        <time>2018-12-28T03:52:19Z</time>
      </trkpt>
      <trkpt lat="35.386630" lon="-117.824910">
        <ele>606.668</ele>
        <time>2018-12-28T03:52:39Z</time>
      </trkpt>
      <trkpt lat="35.386760" lon="-117.824370">
        <ele>607.568</ele>
        <time>2018-12-28T03:52:59Z</time>
      </trkpt>
      <trkpt lat="35.386830" lon="-117.824060">
        <ele>608.082</ele>
        <time>2018-12-28T03:53:19Z</time>
      </trkpt>
      <trkpt lat="35.386890" lon="-117.823820">
        <ele>608.816</ele>
        <time>2018-12-28T03:53:39Z</time>
      </trkpt>
      <trkpt lat="35.387080" lon="-117.822990">
        <ele>611.085</ele>
        <time>2018-12-28T03:53:59Z</time>
      </trkpt>
      <trkpt lat="35.387260" lon="-117.822230">
        <ele>613.020</ele>
        <time>2018-12-28T03:54:19Z</time>
      </trkpt>
      <trkpt lat="35.387680" lon="-117.820440">
        <ele>620.619</ele>
        <time>2018-12-28T03:54:39Z</time>
      </trkpt>
      <trkpt lat="35.387820" lon="-117.819860">
        <ele>622.509</ele>
        <time>2018-12-28T03:54:59Z</time>
      </trkpt>
      <trkpt lat="35.387930" lon="-117.819410">
        <ele>623.419</ele>
        <time>2018-12-28T03:55:19Z</time>
      </trkpt>
      <trkpt lat="35.388010" lon="-117.819060">
        <ele>623.808</ele>
        <time>2018-12-28T03:55:39Z</time>
      </trkpt>
      <trkpt lat="35.388070" lon="-117.818790">
        <ele>624.454</ele>
        <time>2018-12-28T03:55:59Z</time>
      </trkpt>
      <trkpt lat="35.388090" lon="-117.818690">
        <ele>624.652</ele>
        <time>2018-12-28T03:56:19Z</time>
      </trkpt>
      <trkpt lat="35.388190" lon="-117.818250">
        <ele>626.397</ele>
        <time>2018-12-28T03:56:39Z</time>
      </trkpt>
      <trkpt lat="35.388270" lon="-117.817940">
        <ele>627.837</ele>
        <time>2018-12-28T03:56:59Z</time>
      </trkpt>
      <trkpt lat="35.388340" lon="-117.817620">
        <ele>629.111</ele>
        <time>2018-12-28T03:57:19Z</time>
      </trkpt>
      <trkpt lat="35.388400" lon="-117.817380">
        <ele>630.165</ele>
        <time>2018-12-28T03:57:39Z</time>
      </trkpt>
      <trkpt lat="35.388450" lon="-117.817130">
        <ele>631.224</ele>
        <time>2018-12-28T03:57:59Z</time>
      </trkpt>
      <trkpt lat="35.388500" lon="-117.816960">
        <ele>632.159</ele>
        <time>2018-12-28T03:58:19Z</time>
      </trkpt>
      <trkpt lat="35.388710" lon="-117.816030">
        <ele>632.817</ele>
        <time>2018-12-28T03:58:39Z</time>
      </trkpt>
      <trkpt lat="35.388850" lon="-117.815440">
        <ele>631.987</ele>
        <time>2018-12-28T03:58:59Z</time>
      </trkpt>
      <trkpt lat="35.389060" lon="-117.814530">
        <ele>630.615</ele>
        <time>2018-12-28T03:59:19Z</time>
      </trkpt>
      <trkpt lat="35.389190" lon="-117.813990">
        <ele>631.108</ele>
        <time>2018-12-28T03:59:39Z</time>
      </trkpt>
      <trkpt lat="35.389390" lon="-117.813130">
        <ele>632.724</ele>
        <time>2018-12-28T03:59:59Z</time>
      </trkpt>
      <trkpt lat="35.389490" lon="-117.812750">
        <ele>633.712</ele>
        <time>2018-12-28T04:00:19Z</time>
      </trkpt>
      <trkpt lat="35.389560" lon="-117.812440">
        <ele>635.057</ele>
        <time>2018-12-28T04:00:39Z</time>
      </trkpt>
      <trkpt lat="35.389650" lon="-117.812070">
        <ele>635.997</ele>
        <time>2018-12-28T04:00:59Z</time>
      </trkpt>
      <trkpt lat="35.389740" lon="-117.811680">
        <ele>638.311</ele>
        <time>2018-12-28T04:01:19Z</time>
      </trkpt>
      <trkpt lat="35.389830" lon="-117.811300">
        <ele>640.555</ele>
        <time>2018-12-28T04:01:39Z</time>
      </trkpt>
      <trkpt lat="35.389920" lon="-117.810890">
        <ele>642.474</ele>
        <time>2018-12-28T04:01:59Z</time>
      </trkpt>
      <trkpt lat="35.390010" lon="-117.810520">
        <ele>643.459</ele>
        <time>2018-12-28T04:02:19Z</time>
      </trkpt>
      <trkpt lat="35.390100" lon="-117.810120">
        <ele>644.028</ele>
        <time>2018-12-28T04:02:39Z</time>
      </trkpt>
      <trkpt lat="35.390190" lon="-117.809740">
        <ele>644.889</ele>
        <time>2018-12-28T04:02:59Z</time>
      </trkpt>
      <trkpt lat="35.390250" lon="-117.809470">
        <ele>645.217</ele>
        <time>2018-12-28T04:03:19Z</time>
      </trkpt>
      <trkpt lat="35.390410" lon="-117.808770">
        <ele>648.008</ele>
        <time>2018-12-28T04:03:39Z</time>
      </trkpt>
      <trkpt lat="35.390560" lon="-117.808150">
        <ele>649.215</ele>
        <time>2018-12-28T04:03:59Z</time>
      </trkpt>
      <trkpt lat="35.390690" lon="-117.807590">
        <ele>649.413</ele>
        <time>2018-12-28T04:04:19Z</time>
      </trkpt>
      <trkpt lat="35.390830" lon="-117.807010">
        <ele>648.968</ele>
        <time>2018-12-28T04:04:39Z</time>
      </trkpt>
      <trkpt lat="35.390930" lon="-117.806610">
        <ele>648.378</ele>
        <time>2018-12-28T04:04:59Z</time>
      </trkpt>
      <trkpt lat="35.391170" lon="-117.805590">
        <ele>645.832</ele>
        <time>2018-12-28T04:05:19Z</time>
      </trkpt>
      <trkpt lat="35.391350" lon="-117.804840">
        <ele>645.266</ele>
        <time>2018-12-28T04:05:39Z</time>
      </trkpt>
      <trkpt lat="35.391490" lon="-117.804230">
        <ele>644.695</ele>
        <time>2018-12-28T04:05:59Z</time>
      </trkpt>
      <trkpt lat="35.391620" lon="-117.803690">
        <ele>644.280</ele>
        <time>2018-12-28T04:06:19Z</time>
      </trkpt>
      <trkpt lat="35.391760" lon="-117.803140">
        <ele>643.874</ele>
        <time>2018-12-28T04:06:39Z</time>
      </trkpt>
      <trkpt lat="35.391890" lon="-117.802560">
        <ele>643.156</ele>
        <time>2018-12-28T04:06:59Z</time>
      </trkpt>
      <trkpt lat="35.392020" lon="-117.802020">
        <ele>642.421</ele>
        <time>2018-12-28T04:07:19Z</time>
      </trkpt>
      <trkpt lat="35.392090" lon="-117.801730">
        <ele>642.208</ele>
        <time>2018-12-28T04:07:39Z</time>
      </trkpt>
      <trkpt lat="35.392250" lon="-117.801050">
        <ele>642.450</ele>
        <time>2018-12-28T04:07:59Z</time>
      </trkpt>
      <trkpt lat="35.392400" lon="-117.800480">
        <ele>642.888</ele>
        <time>2018-12-28T04:08:19Z</time>
      </trkpt>
      <trkpt lat="35.392520" lon="-117.799990">
        <ele>642.853</ele>
        <time>2018-12-28T04:08:39Z</time>
      </trkpt>
      <trkpt lat="35.392590" lon="-117.799680">
        <ele>642.913</ele>
        <time>2018-12-28T04:08:59Z</time>
      </trkpt>
      <trkpt lat="35.392650" lon="-117.799380">
        <ele>643.047</ele>
        <time>2018-12-28T04:09:19Z</time>
      </trkpt>
      <trkpt lat="35.392830" lon="-117.798520">
        <ele>643.621</ele>
        <time>2018-12-28T04:09:39Z</time>
      </trkpt>
      <trkpt lat="35.392827" lon="-117.798524">
        <ele>643.660</ele>
        <time>2018-12-28T04:09:59Z</time>
      </trkpt>
      <trkpt lat="35.392960" lon="-117.797950">
        <ele>644.035</ele>
        <time>2018-12-28T04:10:19Z</time>
      </trkpt>
      <trkpt lat="35.393000" lon="-117.797750">
        <ele>644.141</ele>
        <time>2018-12-28T04:10:39Z</time>
      </trkpt>
      <trkpt lat="35.393070" lon="-117.797490">
        <ele>644.281</ele>
        <time>2018-12-28T04:10:59Z</time>
      </trkpt>
      <trkpt lat="35.393110" lon="-117.797350">
        <ele>644.309</ele>
        <time>2018-12-28T04:11:19Z</time>
      </trkpt>
      <trkpt lat="35.393150" lon="-117.797220">
        <ele>644.308</ele>
        <time>2018-12-28T04:11:39Z</time>
      </trkpt>
      <trkpt lat="35.393200" lon="-117.797100">
        <ele>644.427</ele>
        <time>2018-12-28T04:11:59Z</time>
      </trkpt>
      <trkpt lat="35.393260" lon="-117.796970">
        <ele>644.575</ele>
        <time>2018-12-28T04:12:19Z</time>
      </trkpt>
      <trkpt lat="35.393330" lon="-117.796830">
        <ele>644.670</ele>
        <time>2018-12-28T04:12:39Z</time>
      </trkpt>
      <trkpt lat="35.393410" lon="-117.796700">
        <ele>644.790</ele>
        <time>2018-12-28T04:12:59Z</time>
      </trkpt>
      <trkpt lat="35.393480" lon="-117.796590">
        <ele>644.844</ele>
        <time>2018-12-28T04:13:19Z</time>
      </trkpt>
      <trkpt lat="35.393600" lon="-117.796430">
        <ele>644.998</ele>
        <time>2018-12-28T04:13:39Z</time>
      </trkpt>
      <trkpt lat="35.393740" lon="-117.796270">
        <ele>645.077</ele>
        <time>2018-12-28T04:13:59Z</time>
      </trkpt>
      <trkpt lat="35.393880" lon="-117.796100">
        <ele>644.812</ele>
        <time>2018-12-28T04:14:19Z</time>
      </trkpt>
      <trkpt lat="35.394030" lon="-117.795940">
        <ele>644.736</ele>
        <time>2018-12-28T04:14:39Z</time>
      </trkpt>
      <trkpt lat="35.394230" lon="-117.795720">
        <ele>644.417</ele>
        <time>2018-12-28T04:14:59Z</time>
      </trkpt>
      <trkpt lat="35.394430" lon="-117.795530">
        <ele>644.618</ele>
        <time>2018-12-28T04:15:19Z</time>
      </trkpt>
      <trkpt lat="35.394630" lon="-117.795330">
        <ele>645.108</ele>
        <time>2018-12-28T04:15:39Z</time>
      </trkpt>
      <trkpt lat="35.394980" lon="-117.795010">
        <ele>646.496</ele>
        <time>2018-12-28T04:15:59Z</time>
      </trkpt>
      <trkpt lat="35.395430" lon="-117.794610">
        <ele>648.354</ele>
        <time>2018-12-28T04:16:19Z</time>
      </trkpt>
      <trkpt lat="35.395880" lon="-117.794210">
        <ele>649.489</ele>
        <time>2018-12-28T04:16:39Z</time>
      </trkpt>
      <trkpt lat="35.396130" lon="-117.793980">
        <ele>649.599</ele>
        <time>2018-12-28T04:16:59Z</time>
      </trkpt>
      <trkpt lat="35.396510" lon="-117.793630">
        <ele>649.853</ele>
        <time>2018-12-28T04:17:19Z</time>
      </trkpt>
      <trkpt lat="35.396850" lon="-117.793320">
        <ele>650.067</ele>
        <time>2018-12-28T04:17:39Z</time>
      </trkpt>
      <trkpt lat="35.397230" lon="-117.792970">
        <ele>650.156</ele>
        <time>2018-12-28T04:17:59Z</time>
      </trkpt>
      <trkpt lat="35.397480" lon="-117.792740">
        <ele>650.171</ele>
        <time>2018-12-28T04:18:19Z</time>
      </trkpt>
      <trkpt lat="35.397730" lon="-117.792510">
        <ele>650.529</ele>
        <time>2018-12-28T04:18:39Z</time>
      </trkpt>
      <trkpt lat="35.397870" lon="-117.792400">
        <ele>651.000</ele>
        <time>2018-12-28T04:18:59Z</time>
      </trkpt>
      <trkpt lat="35.397980" lon="-117.792300">
        <ele>651.220</ele>
        <time>2018-12-28T04:19:19Z</time>
      </trkpt>
      <trkpt lat="35.398160" lon="-117.792170">
        <ele>651.408</ele>
        <time>2018-12-28T04:19:39Z</time>
      </trkpt>
      <trkpt lat="35.398280" lon="-117.792100">
        <ele>651.545</ele>
        <time>2018-12-28T04:19:59Z</time>
      </trkpt>
      <trkpt lat="35.398360" lon="-117.792030">
        <ele>651.573</ele>
        <time>2018-12-28T04:20:19Z</time>
      </trkpt>
      <trkpt lat="35.398510" lon="-117.791940">
        <ele>651.988</ele>
        <time>2018-12-28T04:20:39Z</time>
      </trkpt>
      <trkpt lat="35.398690" lon="-117.791810">
        <ele>652.638</ele>
        <time>2018-12-28T04:20:59Z</time>
      </trkpt>
      <trkpt lat="35.398860" lon="-117.791710">
        <ele>653.322</ele>
        <time>2018-12-28T04:21:19Z</time>
      </trkpt>
      <trkpt lat="35.399050" lon="-117.791600">
        <ele>654.056</ele>
        <time>2018-12-28T04:21:39Z</time>
      </trkpt>
      <trkpt lat="35.399280" lon="-117.791470">
        <ele>654.955</ele>
        <time>2018-12-28T04:21:59Z</time>
      </trkpt>
      <trkpt lat="35.399490" lon="-117.791350">
        <ele>655.960</ele>
        <time>2018-12-28T04:22:19Z</time>
      </trkpt>
      <trkpt lat="35.399720" lon="-117.791220">
        <ele>656.722</ele>
        <time>2018-12-28T04:22:39Z</time>
      </trkpt>
      <trkpt lat="35.399960" lon="-117.791120">
        <ele>657.562</ele>
        <time>2018-12-28T04:22:59Z</time>
      </trkpt>
      <trkpt lat="35.400200" lon="-117.791020">
        <ele>658.008</ele>
        <time>2018-12-28T04:23:19Z</time>
      </trkpt>
      <trkpt lat="35.400430" lon="-117.790950">
        <ele>658.308</ele>
        <time>2018-12-28T04:23:39Z</time>
      </trkpt>
      <trkpt lat="35.400790" lon="-117.790850">
        <ele>658.995</ele>
        <time>2018-12-28T04:23:59Z</time>
      </trkpt>
      <trkpt lat="35.401060" lon="-117.790770">
        <ele>659.643</ele>
        <time>2018-12-28T04:24:19Z</time>
      </trkpt>
      <trkpt lat="35.401750" lon="-117.790580">
        <ele>659.958</ele>
        <time>2018-12-28T04:24:39Z</time>
      </trkpt>
      <trkpt lat="35.402150" lon="-117.790470">
        <ele>661.098</ele>
        <time>2018-12-28T04:24:59Z</time>
      </trkpt>
      <trkpt lat="35.402500" lon="-117.790370">
        <ele>662.082</ele>
        <time>2018-12-28T04:25:19Z</time>
      </trkpt>
      <trkpt lat="35.402770" lon="-117.790280">
        <ele>662.876</ele>
        <time>2018-12-28T04:25:39Z</time>
      </trkpt>
      <trkpt lat="35.402920" lon="-117.790240">
        <ele>663.225</ele>
        <time>2018-12-28T04:25:59Z</time>
      </trkpt>
      <trkpt lat="35.403060" lon="-117.790190">
        <ele>663.630</ele>
        <time>2018-12-28T04:26:19Z</time>
      </trkpt>
      <trkpt lat="35.403290" lon="-117.790090">
        <ele>664.289</ele>
        <time>2018-12-28T04:26:39Z</time>
      </trkpt>
      <trkpt lat="35.403460" lon="-117.790010">
        <ele>664.506</ele>
        <time>2018-12-28T04:26:59Z</time>
      </trkpt>
      <trkpt lat="35.403570" lon="-117.789950">
        <ele>664.826</ele>
        <time>2018-12-28T04:27:19Z</time>
      </trkpt>
      <trkpt lat="35.403820" lon="-117.789790">
        <ele>665.308</ele>
        <time>2018-12-28T04:27:39Z</time>
      </trkpt>
      <trkpt lat="35.404000" lon="-117.789670">
        <ele>665.871</ele>
        <time>2018-12-28T04:27:59Z</time>
      </trkpt>
      <trkpt lat="35.404200" lon="-117.789500">
        <ele>666.059</ele>
        <time>2018-12-28T04:28:19Z</time>
      </trkpt>
      <trkpt lat="35.404380" lon="-117.789350">
        <ele>666.384</ele>
        <time>2018-12-28T04:28:39Z</time>
      </trkpt>
      <trkpt lat="35.404900" lon="-117.788880">
        <ele>667.374</ele>
        <time>2018-12-28T04:28:59Z</time>
      </trkpt>
      <trkpt lat="35.405090" lon="-117.788700">
        <ele>667.568</ele>
        <time>2018-12-28T04:29:19Z</time>
      </trkpt>
      <trkpt lat="35.405280" lon="-117.788530">
        <ele>667.732</ele>
        <time>2018-12-28T04:29:39Z</time>
      </trkpt>
      <trkpt lat="35.405560" lon="-117.788270">
        <ele>668.181</ele>
        <time>2018-12-28T04:29:59Z</time>
      </trkpt>
      <trkpt lat="35.405730" lon="-117.788100">
        <ele>668.366</ele>
        <time>2018-12-28T04:30:19Z</time>
      </trkpt>
      <trkpt lat="35.405940" lon="-117.787890">
        <ele>668.588</ele>
        <time>2018-12-28T04:30:39Z</time>
      </trkpt>
      <trkpt lat="35.406170" lon="-117.787640">
        <ele>668.824</ele>
        <time>2018-12-28T04:30:59Z</time>
      </trkpt>
      <trkpt lat="35.406490" lon="-117.787300">
        <ele>669.026</ele>
        <time>2018-12-28T04:31:19Z</time>
      </trkpt>
      <trkpt lat="35.406700" lon="-117.787070">
        <ele>669.108</ele>
        <time>2018-12-28T04:31:39Z</time>
      </trkpt>
      <trkpt lat="35.406880" lon="-117.786880">
        <ele>669.211</ele>
        <time>2018-12-28T04:31:59Z</time>
      </trkpt>
      <trkpt lat="35.407060" lon="-117.786690">
        <ele>669.199</ele>
        <time>2018-12-28T04:32:19Z</time>
      </trkpt>
      <trkpt lat="35.407240" lon="-117.786520">
        <ele>669.124</ele>
        <time>2018-12-28T04:32:39Z</time>
      </trkpt>
      <trkpt lat="35.407340" lon="-117.786440">
        <ele>669.234</ele>
        <time>2018-12-28T04:32:59Z</time>
      </trkpt>
      <trkpt lat="35.407450" lon="-117.786340">
        <ele>669.288</ele>
        <time>2018-12-28T04:33:19Z</time>
      </trkpt>
      <trkpt lat="35.407580" lon="-117.786240">
        <ele>669.342</ele>
        <time>2018-12-28T04:33:39Z</time>
      </trkpt>
      <trkpt lat="35.407720" lon="-117.786160">
        <ele>669.311</ele>
        <time>2018-12-28T04:33:59Z</time>
      </trkpt>
      <trkpt lat="35.407860" lon="-117.786080">
        <ele>669.586</ele>
        <time>2018-12-28T04:34:19Z</time>
      </trkpt>
      <trkpt lat="35.408000" lon="-117.786020">
        <ele>669.694</ele>
        <time>2018-12-28T04:34:39Z</time>
      </trkpt>
      <trkpt lat="35.408170" lon="-117.785940">
        <ele>669.757</ele>
        <time>2018-12-28T04:34:59Z</time>
      </trkpt>
      <trkpt lat="35.408350" lon="-117.785860">
        <ele>669.822</ele>
        <time>2018-12-28T04:35:19Z</time>
      </trkpt>
      <trkpt lat="35.408540" lon="-117.785780">
        <ele>669.908</ele>
        <time>2018-12-28T04:35:39Z</time>
      </trkpt>
      <trkpt lat="35.408770" lon="-117.785680">
        <ele>670.162</ele>
        <time>2018-12-28T04:35:59Z</time>
      </trkpt>
      <trkpt lat="35.408930" lon="-117.785610">
        <ele>670.180</ele>
        <time>2018-12-28T04:36:19Z</time>
      </trkpt>
      <trkpt lat="35.409110" lon="-117.785520">
        <ele>670.155</ele>
        <time>2018-12-28T04:36:39Z</time>
      </trkpt>
      <trkpt lat="35.409320" lon="-117.785420">
        <ele>669.995</ele>
        <time>2018-12-28T04:36:59Z</time>
      </trkpt>
      <trkpt lat="35.409560" lon="-117.785290">
        <ele>670.159</ele>
        <time>2018-12-28T04:37:19Z</time>
      </trkpt>
      <trkpt lat="35.409820" lon="-117.785150">
        <ele>670.673</ele>
        <time>2018-12-28T04:37:39Z</time>
      </trkpt>
      <trkpt lat="35.410040" lon="-117.785010">
        <ele>670.932</ele>
        <time>2018-12-28T04:37:59Z</time>
      </trkpt>
      <trkpt lat="35.410220" lon="-117.784900">
        <ele>671.177</ele>
        <time>2018-12-28T04:38:19Z</time>
      </trkpt>
      <trkpt lat="35.410350" lon="-117.784810">
        <ele>671.177</ele>
        <time>2018-12-28T04:38:39Z</time>
      </trkpt>
      <trkpt lat="35.410460" lon="-117.784730">
        <ele>671.261</ele>
        <time>2018-12-28T04:38:59Z</time>
      </trkpt>
      <trkpt lat="35.410570" lon="-117.784640">
        <ele>671.327</ele>
        <time>2018-12-28T04:39:19Z</time>
      </trkpt>
      <trkpt lat="35.410680" lon="-117.784530">
        <ele>671.308</ele>
        <time>2018-12-28T04:39:39Z</time>
      </trkpt>
      <trkpt lat="35.410770" lon="-117.784420">
        <ele>671.620</ele>
        <time>2018-12-28T04:39:59Z</time>
      </trkpt>
      <trkpt lat="35.410840" lon="-117.784330">
        <ele>671.938</ele>
        <time>2018-12-28T04:40:19Z</time>
      </trkpt>
      <trkpt lat="35.410900" lon="-117.784220">
        <ele>672.063</ele>
        <time>2018-12-28T04:40:39Z</time>
      </trkpt>
      <trkpt lat="35.410960" lon="-117.784120">
        <ele>672.093</ele>
        <time>2018-12-28T04:40:59Z</time>
      </trkpt>
      <trkpt lat="35.411030" lon="-117.783960">
        <ele>672.257</ele>
        <time>2018-12-28T04:41:19Z</time>
      </trkpt>
      <trkpt lat="35.411100" lon="-117.783780">
        <ele>672.311</ele>
        <time>2018-12-28T04:41:39Z</time>
      </trkpt>
      <trkpt lat="35.411200" lon="-117.783440">
        <ele>672.510</ele>
        <time>2018-12-28T04:41:59Z</time>
      </trkpt>
      <trkpt lat="35.411340" lon="-117.782910">
        <ele>672.885</ele>
        <time>2018-12-28T04:42:19Z</time>
      </trkpt>
      <trkpt lat="35.411430" lon="-117.782480">
        <ele>673.227</ele>
        <time>2018-12-28T04:42:39Z</time>
      </trkpt>
      <trkpt lat="35.411500" lon="-117.782200">
        <ele>673.668</ele>
        <time>2018-12-28T04:42:59Z</time>
      </trkpt>
      <trkpt lat="35.411570" lon="-117.781890">
        <ele>674.114</ele>
        <time>2018-12-28T04:43:19Z</time>
      </trkpt>
      <trkpt lat="35.411660" lon="-117.781510">
        <ele>675.008</ele>
        <time>2018-12-28T04:43:39Z</time>
      </trkpt>
      <trkpt lat="35.411770" lon="-117.781120">
        <ele>676.455</ele>
        <time>2018-12-28T04:43:59Z</time>
      </trkpt>
      <trkpt lat="35.411900" lon="-117.780680">
        <ele>677.943</ele>
        <time>2018-12-28T04:44:19Z</time>
      </trkpt>
      <trkpt lat="35.412020" lon="-117.780300">
        <ele>679.078</ele>
        <time>2018-12-28T04:44:39Z</time>
      </trkpt>
      <trkpt lat="35.412170" lon="-117.779870">
        <ele>680.068</ele>
        <time>2018-12-28T04:44:59Z</time>
      </trkpt>
      <trkpt lat="35.412310" lon="-117.779480">
        <ele>680.612</ele>
        <time>2018-12-28T04:45:19Z</time>
      </trkpt>
      <trkpt lat="35.412430" lon="-117.779140">
        <ele>681.246</ele>
        <time>2018-12-28T04:45:39Z</time>
      </trkpt>
      <trkpt lat="35.412530" lon="-117.778860">
        <ele>681.535</ele>
        <time>2018-12-28T04:45:59Z</time>
      </trkpt>
      <trkpt lat="35.412620" lon="-117.778620">
        <ele>681.820</ele>
        <time>2018-12-28T04:46:19Z</time>
      </trkpt>
      <trkpt lat="35.412740" lon="-117.778290">
        <ele>682.198</ele>
        <time>2018-12-28T04:46:39Z</time>
      </trkpt>
      <trkpt lat="35.412870" lon="-117.777950">
        <ele>682.315</ele>
        <time>2018-12-28T04:46:59Z</time>
      </trkpt>
      <trkpt lat="35.412980" lon="-117.777650">
        <ele>682.526</ele>
        <time>2018-12-28T04:47:19Z</time>
      </trkpt>
      <trkpt lat="35.413050" lon="-117.777500">
        <ele>682.508</ele>
        <time>2018-12-28T04:47:39Z</time>
      </trkpt>
      <trkpt lat="35.413120" lon="-117.777350">
        <ele>682.682</ele>
        <time>2018-12-28T04:47:59Z</time>
      </trkpt>
      <trkpt lat="35.413190" lon="-117.777240">
        <ele>682.720</ele>
        <time>2018-12-28T04:48:19Z</time>
      </trkpt>
      <trkpt lat="35.413260" lon="-117.777150">
        <ele>682.815</ele>
        <time>2018-12-28T04:48:39Z</time>
      </trkpt>
      <trkpt lat="35.413340" lon="-117.777050">
        <ele>682.925</ele>
        <time>2018-12-28T04:48:59Z</time>
      </trkpt>
      <trkpt lat="35.413430" lon="-117.776950">
        <ele>682.929</ele>
        <time>2018-12-28T04:49:19Z</time>
      </trkpt>
      <trkpt lat="35.413540" lon="-117.776850">
        <ele>683.083</ele>
        <time>2018-12-28T04:49:39Z</time>
      </trkpt>
      <trkpt lat="35.413640" lon="-117.776770">
        <ele>683.092</ele>
        <time>2018-12-28T04:49:59Z</time>
      </trkpt>
      <trkpt lat="35.413790" lon="-117.776660">
        <ele>683.147</ele>
        <time>2018-12-28T04:50:19Z</time>
      </trkpt>
      <trkpt lat="35.413960" lon="-117.776540">
        <ele>683.288</ele>
        <time>2018-12-28T04:50:39Z</time>
      </trkpt>
      <trkpt lat="35.414290" lon="-117.776330">
        <ele>683.424</ele>
        <time>2018-12-28T04:50:59Z</time>
      </trkpt>
      <trkpt lat="35.414570" lon="-117.776160">
        <ele>683.626</ele>
        <time>2018-12-28T04:51:19Z</time>
      </trkpt>
      <trkpt lat="35.414780" lon="-117.776020">
        <ele>684.608</ele>
        <time>2018-12-28T04:51:39Z</time>
      </trkpt>
      <trkpt lat="35.415000" lon="-117.775880">
        <ele>685.611</ele>
        <time>2018-12-28T04:51:59Z</time>
      </trkpt>
      <trkpt lat="35.415190" lon="-117.775760">
        <ele>686.749</ele>
        <time>2018-12-28T04:52:19Z</time>
      </trkpt>
      <trkpt lat="35.415320" lon="-117.775670">
        <ele>687.324</ele>
        <time>2018-12-28T04:52:39Z</time>
      </trkpt>
      <trkpt lat="35.415480" lon="-117.775550">
        <ele>688.264</ele>
        <time>2018-12-28T04:52:59Z</time>
      </trkpt>
      <trkpt lat="35.415620" lon="-117.775420">
        <ele>689.128</ele>
        <time>2018-12-28T04:53:19Z</time>
      </trkpt>
      <trkpt lat="35.415730" lon="-117.775310">
        <ele>689.862</ele>
        <time>2018-12-28T04:53:39Z</time>
      </trkpt>
      <trkpt lat="35.415840" lon="-117.775170">
        <ele>690.421</ele>
        <time>2018-12-28T04:53:59Z</time>
      </trkpt>
      <trkpt lat="35.415920" lon="-117.775060">
        <ele>690.946</ele>
        <time>2018-12-28T04:54:19Z</time>
      </trkpt>
      <trkpt lat="35.416000" lon="-117.774920">
        <ele>691.487</ele>
        <time>2018-12-28T04:54:39Z</time>
      </trkpt>
      <trkpt lat="35.416070" lon="-117.774770">
        <ele>691.842</ele>
        <time>2018-12-28T04:54:59Z</time>
      </trkpt>
      <trkpt lat="35.416140" lon="-117.774620">
        <ele>692.126</ele>
        <time>2018-12-28T04:55:19Z</time>
      </trkpt>
      <trkpt lat="35.416230" lon="-117.774400">
        <ele>692.508</ele>
        <time>2018-12-28T04:55:39Z</time>
      </trkpt>
      <trkpt lat="35.416310" lon="-117.774190">
        <ele>692.871</ele>
        <time>2018-12-28T04:55:59Z</time>
      </trkpt>
      <trkpt lat="35.416390" lon="-117.773960">
        <ele>693.169</ele>
        <time>2018-12-28T04:56:19Z</time>
      </trkpt>
      <trkpt lat="35.416460" lon="-117.773750">
        <ele>693.294</ele>
        <time>2018-12-28T04:56:39Z</time>
      </trkpt>
      <trkpt lat="35.416520" lon="-117.773510">
        <ele>693.364</ele>
        <time>2018-12-28T04:56:59Z</time>
      </trkpt>
      <trkpt lat="35.416580" lon="-117.773290">
        <ele>693.518</ele>
        <time>2018-12-28T04:57:19Z</time>
      </trkpt>
      <trkpt lat="35.416630" lon="-117.773070">
        <ele>693.792</ele>
        <time>2018-12-28T04:57:39Z</time>
      </trkpt>
      <trkpt lat="35.416660" lon="-117.772870">
        <ele>693.821</ele>
        <time>2018-12-28T04:57:59Z</time>
      </trkpt>
      <trkpt lat="35.416680" lon="-117.772710">
        <ele>693.916</ele>
        <time>2018-12-28T04:58:19Z</time>
      </trkpt>
      <trkpt lat="35.416690" lon="-117.772490">
        <ele>694.167</ele>
        <time>2018-12-28T04:58:39Z</time>
      </trkpt>
      <trkpt lat="35.416700" lon="-117.772270">
        <ele>694.381</ele>
        <time>2018-12-28T04:58:59Z</time>
      </trkpt>
      <trkpt lat="35.416710" lon="-117.771860">
        <ele>694.819</ele>
        <time>2018-12-28T04:59:19Z</time>
      </trkpt>
      <trkpt lat="35.416720" lon="-117.771570">
        <ele>695.108</ele>
        <time>2018-12-28T04:59:39Z</time>
      </trkpt>
      <trkpt lat="35.416750" lon="-117.771100">
        <ele>695.499</ele>
        <time>2018-12-28T04:59:59Z</time>
      </trkpt>
      <trkpt lat="35.416760" lon="-117.770840">
        <ele>695.547</ele>
        <time>2018-12-28T05:00:19Z</time>
      </trkpt>
      <trkpt lat="35.416780" lon="-117.770640">
        <ele>695.692</ele>
        <time>2018-12-28T05:00:39Z</time>
      </trkpt>
      <trkpt lat="35.416810" lon="-117.770400">
        <ele>695.692</ele>
        <time>2018-12-28T05:00:59Z</time>
      </trkpt>
      <trkpt lat="35.416850" lon="-117.770180">
        <ele>696.266</ele>
        <time>2018-12-28T05:01:19Z</time>
      </trkpt>
      <trkpt lat="35.416910" lon="-117.769840">
        <ele>697.920</ele>
        <time>2018-12-28T05:01:39Z</time>
      </trkpt>
      <trkpt lat="35.416960" lon="-117.769640">
        <ele>698.789</ele>
        <time>2018-12-28T05:01:59Z</time>
      </trkpt>
      <trkpt lat="35.417020" lon="-117.769410">
        <ele>699.364</ele>
        <time>2018-12-28T05:02:19Z</time>
      </trkpt>
      <trkpt lat="35.417070" lon="-117.769190">
        <ele>699.762</ele>
        <time>2018-12-28T05:02:39Z</time>
      </trkpt>
      <trkpt lat="35.417230" lon="-117.768630">
        <ele>700.883</ele>
        <time>2018-12-28T05:02:59Z</time>
      </trkpt>
      <trkpt lat="35.417400" lon="-117.768010">
        <ele>701.911</ele>
        <time>2018-12-28T05:03:19Z</time>
      </trkpt>
      <trkpt lat="35.417430" lon="-117.767860">
        <ele>702.208</ele>
        <time>2018-12-28T05:03:39Z</time>
      </trkpt>
      <trkpt lat="35.417580" lon="-117.767300">
        <ele>703.539</ele>
        <time>2018-12-28T05:03:59Z</time>
      </trkpt>
      <trkpt lat="35.417660" lon="-117.766980">
        <ele>704.357</ele>
        <time>2018-12-28T05:04:19Z</time>
      </trkpt>
      <trkpt lat="35.417740" lon="-117.766600">
        <ele>705.392</ele>
        <time>2018-12-28T05:04:39Z</time>
      </trkpt>
      <trkpt lat="35.417810" lon="-117.766300">
        <ele>706.132</ele>
        <time>2018-12-28T05:04:59Z</time>
      </trkpt>
      <trkpt lat="35.417870" lon="-117.766040">
        <ele>706.716</ele>
        <time>2018-12-28T05:05:19Z</time>
      </trkpt>
      <trkpt lat="35.417920" lon="-117.765790">
        <ele>707.260</ele>
        <time>2018-12-28T05:05:39Z</time>
      </trkpt>
      <trkpt lat="35.417980" lon="-117.765520">
        <ele>707.859</ele>
        <time>2018-12-28T05:05:59Z</time>
      </trkpt>
      <trkpt lat="35.418030" lon="-117.765280">
        <ele>708.584</ele>
        <time>2018-12-28T05:06:19Z</time>
      </trkpt>
      <trkpt lat="35.418090" lon="-117.765010">
        <ele>709.533</ele>
        <time>2018-12-28T05:06:39Z</time>
      </trkpt>
      <trkpt lat="35.418140" lon="-117.764850">
        <ele>710.223</ele>
        <time>2018-12-28T05:06:59Z</time>
      </trkpt>
      <trkpt lat="35.418200" lon="-117.764670">
        <ele>711.015</ele>
        <time>2018-12-28T05:07:19Z</time>
      </trkpt>
      <trkpt lat="35.418280" lon="-117.764430">
        <ele>711.908</ele>
        <time>2018-12-28T05:07:39Z</time>
      </trkpt>
      <trkpt lat="35.418380" lon="-117.764210">
        <ele>712.876</ele>
        <time>2018-12-28T05:07:59Z</time>
      </trkpt>
      <trkpt lat="35.418580" lon="-117.763770">
        <ele>714.634</ele>
        <time>2018-12-28T05:08:19Z</time>
      </trkpt>
      <trkpt lat="35.418660" lon="-117.763610">
        <ele>715.279</ele>
        <time>2018-12-28T05:08:39Z</time>
      </trkpt>
      <trkpt lat="35.418720" lon="-117.763440">
        <ele>715.619</ele>
        <time>2018-12-28T05:08:59Z</time>
      </trkpt>
      <trkpt lat="35.418750" lon="-117.763340">
        <ele>715.693</ele>
        <time>2018-12-28T05:09:19Z</time>
      </trkpt>
      <trkpt lat="35.418780" lon="-117.763250">
        <ele>715.737</ele>
        <time>2018-12-28T05:09:39Z</time>
      </trkpt>
      <trkpt lat="35.418800" lon="-117.763140">
        <ele>715.786</ele>
        <time>2018-12-28T05:09:59Z</time>
      </trkpt>
      <trkpt lat="35.418810" lon="-117.763050">
        <ele>715.621</ele>
        <time>2018-12-28T05:10:19Z</time>
      </trkpt>
      <trkpt lat="35.418830" lon="-117.762900">
        <ele>715.599</ele>
        <time>2018-12-28T05:10:39Z</time>
      </trkpt>
      <trkpt lat="35.418840" lon="-117.762800">
        <ele>715.507</ele>
        <time>2018-12-28T05:10:59Z</time>
      </trkpt>
      <trkpt lat="35.418840" lon="-117.762700">
        <ele>715.427</ele>
        <time>2018-12-28T05:11:19Z</time>
      </trkpt>
      <trkpt lat="35.418830" lon="-117.762610">
        <ele>715.308</ele>
        <time>2018-12-28T05:11:39Z</time>
      </trkpt>
      <trkpt lat="35.418830" lon="-117.762530">
        <ele>715.452</ele>
        <time>2018-12-28T05:11:59Z</time>
      </trkpt>
      <trkpt lat="35.418810" lon="-117.762370">
        <ele>715.630</ele>
        <time>2018-12-28T05:12:19Z</time>
      </trkpt>
      <trkpt lat="35.418790" lon="-117.762210">
        <ele>715.915</ele>
        <time>2018-12-28T05:12:39Z</time>
      </trkpt>
      <trkpt lat="35.418760" lon="-117.762030">
        <ele>716.245</ele>
        <time>2018-12-28T05:12:59Z</time>
      </trkpt>
      <trkpt lat="35.418720" lon="-117.761840">
        <ele>716.799</ele>
        <time>2018-12-28T05:13:19Z</time>
      </trkpt>
      <trkpt lat="35.418670" lon="-117.761660">
        <ele>717.133</ele>
        <time>2018-12-28T05:13:39Z</time>
      </trkpt>
      <trkpt lat="35.418630" lon="-117.761510">
        <ele>717.582</ele>
        <time>2018-12-28T05:13:59Z</time>
      </trkpt>
      <trkpt lat="35.418590" lon="-117.761370">
        <ele>717.837</ele>
        <time>2018-12-28T05:14:19Z</time>
      </trkpt>
      <trkpt lat="35.418550" lon="-117.761220">
        <ele>718.117</ele>
        <time>2018-12-28T05:14:39Z</time>
      </trkpt>
      <trkpt lat="35.418490" lon="-117.761010">
        <ele>718.487</ele>
        <time>2018-12-28T05:14:59Z</time>
      </trkpt>
      <trkpt lat="35.418460" lon="-117.760870">
        <ele>718.715</ele>
        <time>2018-12-28T05:15:19Z</time>
      </trkpt>
      <trkpt lat="35.418430" lon="-117.760740">
        <ele>718.908</ele>
        <time>2018-12-28T05:15:39Z</time>
      </trkpt>
      <trkpt lat="35.418400" lon="-117.760590">
        <ele>719.324</ele>
        <time>2018-12-28T05:15:59Z</time>
      </trkpt>
      <trkpt lat="35.418370" lon="-117.760420">
        <ele>719.752</ele>
        <time>2018-12-28T05:16:19Z</time>
      </trkpt>
      <trkpt lat="35.418350" lon="-117.760260">
        <ele>720.127</ele>
        <time>2018-12-28T05:16:39Z</time>
      </trkpt>
      <trkpt lat="35.418330" lon="-117.760100">
        <ele>720.547</ele>
        <time>2018-12-28T05:16:59Z</time>
      </trkpt>
      <trkpt lat="35.418310" lon="-117.759910">
        <ele>721.091</ele>
        <time>2018-12-28T05:17:19Z</time>
      </trkpt>
      <trkpt lat="35.418280" lon="-117.759690">
        <ele>721.515</ele>
        <time>2018-12-28T05:17:39Z</time>
      </trkpt>
      <trkpt lat="35.418270" lon="-117.759510">
        <ele>721.984</ele>
        <time>2018-12-28T05:17:59Z</time>
      </trkpt>
      <trkpt lat="35.418240" lon="-117.759250">
        <ele>722.499</ele>
        <time>2018-12-28T05:18:19Z</time>
      </trkpt>
      <trkpt lat="35.418220" lon="-117.758980">
        <ele>723.015</ele>
        <time>2018-12-28T05:18:39Z</time>
      </trkpt>
      <trkpt lat="35.418200" lon="-117.758720">
        <ele>723.565</ele>
        <time>2018-12-28T05:18:59Z</time>
      </trkpt>
      <trkpt lat="35.418160" lon="-117.758340">
        <ele>724.211</ele>
        <time>2018-12-28T05:19:19Z</time>
      </trkpt>
      <trkpt lat="35.418150" lon="-117.758060">
        <ele>724.808</ele>
        <time>2018-12-28T05:19:39Z</time>
      </trkpt>
      <trkpt lat="35.418140" lon="-117.757830">
        <ele>725.264</ele>
        <time>2018-12-28T05:19:59Z</time>
      </trkpt>
      <trkpt lat="35.418130" lon="-117.757500">
        <ele>725.882</ele>
        <time>2018-12-28T05:20:19Z</time>
      </trkpt>
      <trkpt lat="35.418140" lon="-117.757160">
        <ele>726.557</ele>
        <time>2018-12-28T05:20:39Z</time>
      </trkpt>
      <trkpt lat="35.418160" lon="-117.756630">
        <ele>727.547</ele>
        <time>2018-12-28T05:20:59Z</time>
      </trkpt>
      <trkpt lat="35.418170" lon="-117.756180">
        <ele>728.421</ele>
        <time>2018-12-28T05:21:19Z</time>
      </trkpt>
      <trkpt lat="35.418200" lon="-117.755510">
        <ele>729.695</ele>
        <time>2018-12-28T05:21:39Z</time>
      </trkpt>
      <trkpt lat="35.418220" lon="-117.755110">
        <ele>730.314</ele>
        <time>2018-12-28T05:21:59Z</time>
      </trkpt>
      <trkpt lat="35.418250" lon="-117.754720">
        <ele>731.049</ele>
        <time>2018-12-28T05:22:19Z</time>
      </trkpt>
      <trkpt lat="35.418280" lon="-117.754350">
        <ele>731.999</ele>
        <time>2018-12-28T05:22:39Z</time>
      </trkpt>
      <trkpt lat="35.418320" lon="-117.753830">
        <ele>732.907</ele>
        <time>2018-12-28T05:22:59Z</time>
      </trkpt>
      <trkpt lat="35.418370" lon="-117.753410">
        <ele>733.627</ele>
        <time>2018-12-28T05:23:19Z</time>
      </trkpt>
      <trkpt lat="35.418470" lon="-117.752310">
        <ele>735.008</ele>
        <time>2018-12-28T05:23:39Z</time>
      </trkpt>
      <trkpt lat="35.418490" lon="-117.752100">
        <ele>735.312</ele>
        <time>2018-12-28T05:23:59Z</time>
      </trkpt>
      <trkpt lat="35.418590" lon="-117.751050">
        <ele>734.690</ele>
        <time>2018-12-28T05:24:19Z</time>
      </trkpt>
      <trkpt lat="35.418630" lon="-117.750770">
        <ele>734.725</ele>
        <time>2018-12-28T05:24:39Z</time>
      </trkpt>
      <trkpt lat="35.418710" lon="-117.750330">
        <ele>735.635</ele>
        <time>2018-12-28T05:24:59Z</time>
      </trkpt>
      <trkpt lat="35.418820" lon="-117.749790">
        <ele>737.469</ele>
        <time>2018-12-28T05:25:19Z</time>
      </trkpt>
      <trkpt lat="35.418980" lon="-117.749070">
        <ele>738.453</ele>
        <time>2018-12-28T05:25:39Z</time>
      </trkpt>
      <trkpt lat="35.419200" lon="-117.748070">
        <ele>739.542</ele>
        <time>2018-12-28T05:25:59Z</time>
      </trkpt>
      <trkpt lat="35.419400" lon="-117.747170">
        <ele>742.127</ele>
        <time>2018-12-28T05:26:19Z</time>
      </trkpt>
      <trkpt lat="35.419590" lon="-117.746300">
        <ele>743.881</ele>
        <time>2018-12-28T05:26:39Z</time>
      </trkpt>
      <trkpt lat="35.419720" lon="-117.745720">
        <ele>744.061</ele>
        <time>2018-12-28T05:26:59Z</time>
      </trkpt>
      <trkpt lat="35.419880" lon="-117.744970">
        <ele>743.917</ele>
        <time>2018-12-28T05:27:19Z</time>
      </trkpt>
      <trkpt lat="35.420070" lon="-117.744080">
        <ele>743.908</ele>
        <time>2018-12-28T05:27:39Z</time>
      </trkpt>
      <trkpt lat="35.420250" lon="-117.743240">
        <ele>743.111</ele>
        <time>2018-12-28T05:27:59Z</time>
      </trkpt>
      <trkpt lat="35.420410" lon="-117.742570">
        <ele>744.789</ele>
        <time>2018-12-28T05:28:19Z</time>
      </trkpt>
      <trkpt lat="35.420550" lon="-117.741950">
        <ele>745.614</ele>
        <time>2018-12-28T05:28:39Z</time>
      </trkpt>
      <trkpt lat="35.420720" lon="-117.741220">
        <ele>746.974</ele>
        <time>2018-12-28T05:28:59Z</time>
      </trkpt>
      <trkpt lat="35.420880" lon="-117.740470">
        <ele>748.838</ele>
        <time>2018-12-28T05:29:19Z</time>
      </trkpt>
      <trkpt lat="35.421070" lon="-117.739620">
        <ele>751.242</ele>
        <time>2018-12-28T05:29:39Z</time>
      </trkpt>
      <trkpt lat="35.421240" lon="-117.738810">
        <ele>752.311</ele>
        <time>2018-12-28T05:29:59Z</time>
      </trkpt>
      <trkpt lat="35.421390" lon="-117.738120">
        <ele>753.376</ele>
        <time>2018-12-28T05:30:19Z</time>
      </trkpt>
      <trkpt lat="35.421530" lon="-117.737460">
        <ele>754.059</ele>
        <time>2018-12-28T05:30:39Z</time>
      </trkpt>
      <trkpt lat="35.421610" lon="-117.737080">
        <ele>754.303</ele>
        <time>2018-12-28T05:30:59Z</time>
      </trkpt>
      <trkpt lat="35.421840" lon="-117.735990">
        <ele>756.323</ele>
        <time>2018-12-28T05:31:19Z</time>
      </trkpt>
      <trkpt lat="35.421960" lon="-117.735440">
        <ele>757.508</ele>
        <time>2018-12-28T05:31:39Z</time>
      </trkpt>
      <trkpt lat="35.422170" lon="-117.734460">
        <ele>757.758</ele>
        <time>2018-12-28T05:31:59Z</time>
      </trkpt>
      <trkpt lat="35.422240" lon="-117.734150">
        <ele>757.746</ele>
        <time>2018-12-28T05:32:19Z</time>
      </trkpt>
      <trkpt lat="35.422300" lon="-117.733870">
        <ele>757.831</ele>
        <time>2018-12-28T05:32:39Z</time>
      </trkpt>
      <trkpt lat="35.422390" lon="-117.733440">
        <ele>757.751</ele>
        <time>2018-12-28T05:32:59Z</time>
      </trkpt>
      <trkpt lat="35.422450" lon="-117.733140">
        <ele>757.735</ele>
        <time>2018-12-28T05:33:19Z</time>
      </trkpt>
      <trkpt lat="35.422560" lon="-117.732650">
        <ele>757.899</ele>
        <time>2018-12-28T05:33:39Z</time>
      </trkpt>
      <trkpt lat="35.422630" lon="-117.732350">
        <ele>758.118</ele>
        <time>2018-12-28T05:33:59Z</time>
      </trkpt>
      <trkpt lat="35.422680" lon="-117.732140">
        <ele>758.243</ele>
        <time>2018-12-28T05:34:19Z</time>
      </trkpt>
      <trkpt lat="35.422750" lon="-117.731930">
        <ele>758.446</ele>
        <time>2018-12-28T05:34:39Z</time>
      </trkpt>
      <trkpt lat="35.422820" lon="-117.731710">
        <ele>758.588</ele>
        <time>2018-12-28T05:34:59Z</time>
      </trkpt>
      <trkpt lat="35.422910" lon="-117.731490">
        <ele>758.716</ele>
        <time>2018-12-28T05:35:19Z</time>
      </trkpt>
      <trkpt lat="35.422980" lon="-117.731290">
        <ele>758.808</ele>
        <time>2018-12-28T05:35:39Z</time>
      </trkpt>
      <trkpt lat="35.423070" lon="-117.731070">
        <ele>758.997</ele>
        <time>2018-12-28T05:35:59Z</time>
      </trkpt>
      <trkpt lat="35.423160" lon="-117.730870">
        <ele>759.145</ele>
        <time>2018-12-28T05:36:19Z</time>
      </trkpt>
      <trkpt lat="35.423270" lon="-117.730650">
        <ele>759.420</ele>
        <time>2018-12-28T05:36:39Z</time>
      </trkpt>
      <trkpt lat="35.423380" lon="-117.730410">
        <ele>759.830</ele>
        <time>2018-12-28T05:36:59Z</time>
      </trkpt>
      <trkpt lat="35.423510" lon="-117.730160">
        <ele>760.424</ele>
        <time>2018-12-28T05:37:19Z</time>
      </trkpt>
      <trkpt lat="35.423650" lon="-117.729900">
        <ele>760.878</ele>
        <time>2018-12-28T05:37:39Z</time>
      </trkpt>
      <trkpt lat="35.423970" lon="-117.729290">
        <ele>762.047</ele>
        <time>2018-12-28T05:37:59Z</time>
      </trkpt>
      <trkpt lat="35.424080" lon="-117.729090">
        <ele>763.612</ele>
        <time>2018-12-28T05:38:19Z</time>
      </trkpt>
      <trkpt lat="35.424150" lon="-117.728940">
        <ele>764.616</ele>
        <time>2018-12-28T05:38:39Z</time>
      </trkpt>
      <trkpt lat="35.424330" lon="-117.728600">
        <ele>765.376</ele>
        <time>2018-12-28T05:38:59Z</time>
      </trkpt>
      <trkpt lat="35.424430" lon="-117.728420">
        <ele>765.113</ele>
        <time>2018-12-28T05:39:19Z</time>
      </trkpt>
      <trkpt lat="35.424570" lon="-117.728150">
        <ele>765.408</ele>
        <time>2018-12-28T05:39:39Z</time>
      </trkpt>
      <trkpt lat="35.424680" lon="-117.727950">
        <ele>765.924</ele>
        <time>2018-12-28T05:39:59Z</time>
      </trkpt>
      <trkpt lat="35.424800" lon="-117.727730">
        <ele>766.442</ele>
        <time>2018-12-28T05:40:19Z</time>
      </trkpt>
      <trkpt lat="35.424940" lon="-117.727460">
        <ele>767.797</ele>
        <time>2018-12-28T05:40:39Z</time>
      </trkpt>
      <trkpt lat="35.425040" lon="-117.727260">
        <ele>768.987</ele>
        <time>2018-12-28T05:40:59Z</time>
      </trkpt>
      <trkpt lat="35.425170" lon="-117.727030">
        <ele>770.131</ele>
        <time>2018-12-28T05:41:19Z</time>
      </trkpt>
      <trkpt lat="35.425340" lon="-117.726690">
        <ele>770.575</ele>
        <time>2018-12-28T05:41:39Z</time>
      </trkpt>
      <trkpt lat="35.425460" lon="-117.726460">
        <ele>770.794</ele>
        <time>2018-12-28T05:41:59Z</time>
      </trkpt>
      <trkpt lat="35.425540" lon="-117.726280">
        <ele>770.859</ele>
        <time>2018-12-28T05:42:19Z</time>
      </trkpt>
      <trkpt lat="35.425630" lon="-117.726100">
        <ele>771.049</ele>
        <time>2018-12-28T05:42:39Z</time>
      </trkpt>
      <trkpt lat="35.425690" lon="-117.725970">
        <ele>771.102</ele>
        <time>2018-12-28T05:42:59Z</time>
      </trkpt>
      <trkpt lat="35.425750" lon="-117.725830">
        <ele>771.422</ele>
        <time>2018-12-28T05:43:19Z</time>
      </trkpt>
      <trkpt lat="35.425830" lon="-117.725650">
        <ele>771.708</ele>
        <time>2018-12-28T05:43:39Z</time>
      </trkpt>
      <trkpt lat="35.425930" lon="-117.725410">
        <ele>772.287</ele>
        <time>2018-12-28T05:43:59Z</time>
      </trkpt>
      <trkpt lat="35.426010" lon="-117.725190">
        <ele>772.665</ele>
        <time>2018-12-28T05:44:19Z</time>
      </trkpt>
      <trkpt lat="35.426090" lon="-117.724960">
        <ele>773.060</ele>
        <time>2018-12-28T05:44:39Z</time>
      </trkpt>
      <trkpt lat="35.426170" lon="-117.724710">
        <ele>773.580</ele>
        <time>2018-12-28T05:44:59Z</time>
      </trkpt>
      <trkpt lat="35.426220" lon="-117.724510">
        <ele>773.874</ele>
        <time>2018-12-28T05:45:19Z</time>
      </trkpt>
      <trkpt lat="35.426290" lon="-117.724250">
        <ele>774.578</ele>
        <time>2018-12-28T05:45:39Z</time>
      </trkpt>
      <trkpt lat="35.426350" lon="-117.724040">
        <ele>775.327</ele>
        <time>2018-12-28T05:45:59Z</time>
      </trkpt>
      <trkpt lat="35.426390" lon="-117.723870">
        <ele>775.722</ele>
        <time>2018-12-28T05:46:19Z</time>
      </trkpt>
      <trkpt lat="35.426430" lon="-117.723680">
        <ele>776.111</ele>
        <time>2018-12-28T05:46:39Z</time>
      </trkpt>
      <trkpt lat="35.426480" lon="-117.723460">
        <ele>776.321</ele>
        <time>2018-12-28T05:46:59Z</time>
      </trkpt>
      <trkpt lat="35.426520" lon="-117.723210">
        <ele>776.303</ele>
        <time>2018-12-28T05:47:19Z</time>
      </trkpt>
      <trkpt lat="35.426570" lon="-117.722920">
        <ele>776.408</ele>
        <time>2018-12-28T05:47:39Z</time>
      </trkpt>
      <trkpt lat="35.426590" lon="-117.722730">
        <ele>776.444</ele>
        <time>2018-12-28T05:47:59Z</time>
      </trkpt>
      <trkpt lat="35.426620" lon="-117.722510">
        <ele>776.662</ele>
        <time>2018-12-28T05:48:19Z</time>
      </trkpt>
      <trkpt lat="35.426640" lon="-117.722280">
        <ele>776.997</ele>
        <time>2018-12-28T05:48:39Z</time>
      </trkpt>
      <trkpt lat="35.426660" lon="-117.722070">
        <ele>777.517</ele>
        <time>2018-12-28T05:48:59Z</time>
      </trkpt>
      <trkpt lat="35.426680" lon="-117.721770">
        <ele>778.151</ele>
        <time>2018-12-28T05:49:19Z</time>
      </trkpt>
      <trkpt lat="35.426680" lon="-117.721650">
        <ele>778.125</ele>
        <time>2018-12-28T05:49:39Z</time>
      </trkpt>
      <trkpt lat="35.426690" lon="-117.721500">
        <ele>778.374</ele>
        <time>2018-12-28T05:49:59Z</time>
      </trkpt>
      <trkpt lat="35.426690" lon="-117.721420">
        <ele>778.339</ele>
        <time>2018-12-28T05:50:19Z</time>
      </trkpt>
      <trkpt lat="35.426700" lon="-117.721220">
        <ele>778.591</ele>
        <time>2018-12-28T05:50:39Z</time>
      </trkpt>
      <trkpt lat="35.426700" lon="-117.721030">
        <ele>778.681</ele>
        <time>2018-12-28T05:50:59Z</time>
      </trkpt>
      <trkpt lat="35.426700" lon="-117.720710">
        <ele>778.819</ele>
        <time>2018-12-28T05:51:19Z</time>
      </trkpt>
      <trkpt lat="35.426690" lon="-117.720080">
        <ele>779.208</ele>
        <time>2018-12-28T05:51:39Z</time>
      </trkpt>
      <trkpt lat="35.426680" lon="-117.719620">
        <ele>779.742</ele>
        <time>2018-12-28T05:51:59Z</time>
      </trkpt>
      <trkpt lat="35.426670" lon="-117.718880">
        <ele>781.030</ele>
        <time>2018-12-28T05:52:19Z</time>
      </trkpt>
      <trkpt lat="35.426660" lon="-117.718190">
        <ele>784.345</ele>
        <time>2018-12-28T05:52:39Z</time>
      </trkpt>
      <trkpt lat="35.426650" lon="-117.717500">
        <ele>787.255</ele>
        <time>2018-12-28T05:52:59Z</time>
      </trkpt>
      <trkpt lat="35.426640" lon="-117.716810">
        <ele>789.399</ele>
        <time>2018-12-28T05:53:19Z</time>
      </trkpt>
      <trkpt lat="35.426630" lon="-117.716290">
        <ele>790.083</ele>
        <time>2018-12-28T05:53:39Z</time>
      </trkpt>
      <trkpt lat="35.426630" lon="-117.716180">
        <ele>790.122</ele>
        <time>2018-12-28T05:53:59Z</time>
      </trkpt>
      <trkpt lat="35.426610" lon="-117.714930">
        <ele>791.087</ele>
        <time>2018-12-28T05:54:19Z</time>
      </trkpt>
      <trkpt lat="35.426600" lon="-117.713930">
        <ele>791.299</ele>
        <time>2018-12-28T05:54:39Z</time>
      </trkpt>
      <trkpt lat="35.426580" lon="-117.713040">
        <ele>793.207</ele>
        <time>2018-12-28T05:54:59Z</time>
      </trkpt>
      <trkpt lat="35.426570" lon="-117.712040">
        <ele>795.127</ele>
        <time>2018-12-28T05:55:19Z</time>
      </trkpt>
      <trkpt lat="35.426560" lon="-117.711370">
        <ele>795.408</ele>
        <time>2018-12-28T05:55:39Z</time>
      </trkpt>
      <trkpt lat="35.426560" lon="-117.711020">
        <ele>795.872</ele>
        <time>2018-12-28T05:55:59Z</time>
      </trkpt>
      <trkpt lat="35.426550" lon="-117.710630">
        <ele>796.050</ele>
        <time>2018-12-28T05:56:19Z</time>
      </trkpt>
      <trkpt lat="35.426540" lon="-117.710240">
        <ele>796.045</ele>
        <time>2018-12-28T05:56:39Z</time>
      </trkpt>
      <trkpt lat="35.426540" lon="-117.709770">
        <ele>795.925</ele>
        <time>2018-12-28T05:56:59Z</time>
      </trkpt>
      <trkpt lat="35.426530" lon="-117.708910">
        <ele>795.999</ele>
        <time>2018-12-28T05:57:19Z</time>
      </trkpt>
      <trkpt lat="35.426520" lon="-117.708430">
        <ele>796.153</ele>
        <time>2018-12-28T05:57:39Z</time>
      </trkpt>
      <trkpt lat="35.426510" lon="-117.707970">
        <ele>796.522</ele>
        <time>2018-12-28T05:57:59Z</time>
      </trkpt>
      <trkpt lat="35.426500" lon="-117.707070">
        <ele>797.737</ele>
        <time>2018-12-28T05:58:19Z</time>
      </trkpt>
      <trkpt lat="35.426490" lon="-117.706550">
        <ele>798.227</ele>
        <time>2018-12-28T05:58:39Z</time>
      </trkpt>
      <trkpt lat="35.426490" lon="-117.706240">
        <ele>798.468</ele>
        <time>2018-12-28T05:58:59Z</time>
      </trkpt>
      <trkpt lat="35.426480" lon="-117.705470">
        <ele>799.014</ele>
        <time>2018-12-28T05:59:19Z</time>
      </trkpt>
      <trkpt lat="35.426470" lon="-117.704690">
        <ele>801.508</ele>
        <time>2018-12-28T05:59:39Z</time>
      </trkpt>
      <trkpt lat="35.426450" lon="-117.703800">
        <ele>802.315</ele>
        <time>2018-12-28T05:59:59Z</time>
      </trkpt>
      <trkpt lat="35.426430" lon="-117.702090">
        <ele>804.993</ele>
        <time>2018-12-28T06:00:19Z</time>
      </trkpt>
      <trkpt lat="35.426420" lon="-117.701330">
        <ele>807.488</ele>
        <time>2018-12-28T06:00:39Z</time>
      </trkpt>
      <trkpt lat="35.426410" lon="-117.701060">
        <ele>808.428</ele>
        <time>2018-12-28T06:00:59Z</time>
      </trkpt>
      <trkpt lat="35.426410" lon="-117.700900">
        <ele>809.162</ele>
        <time>2018-12-28T06:01:19Z</time>
      </trkpt>
      <trkpt lat="35.426400" lon="-117.700600">
        <ele>810.846</ele>
        <time>2018-12-28T06:01:39Z</time>
      </trkpt>
      <trkpt lat="35.426390" lon="-117.700360">
        <ele>812.065</ele>
        <time>2018-12-28T06:01:59Z</time>
      </trkpt>
      <trkpt lat="35.426370" lon="-117.700050">
        <ele>813.110</ele>
        <time>2018-12-28T06:02:19Z</time>
      </trkpt>
      <trkpt lat="35.426350" lon="-117.699660">
        <ele>814.669</ele>
        <time>2018-12-28T06:02:39Z</time>
      </trkpt>
      <trkpt lat="35.426340" lon="-117.699550">
        <ele>815.104</ele>
        <time>2018-12-28T06:02:59Z</time>
      </trkpt>
      <trkpt lat="35.426300" lon="-117.698960">
        <ele>817.724</ele>
        <time>2018-12-28T06:03:19Z</time>
      </trkpt>
      <trkpt lat="35.426260" lon="-117.698500">
        <ele>818.708</ele>
        <time>2018-12-28T06:03:39Z</time>
      </trkpt>
      <trkpt lat="35.426240" lon="-117.698270">
        <ele>819.289</ele>
        <time>2018-12-28T06:03:59Z</time>
      </trkpt>
      <trkpt lat="35.426220" lon="-117.697990">
        <ele>819.997</ele>
        <time>2018-12-28T06:04:19Z</time>
      </trkpt>
      <trkpt lat="35.426190" lon="-117.697620">
        <ele>821.482</ele>
        <time>2018-12-28T06:04:39Z</time>
      </trkpt>
      <trkpt lat="35.426150" lon="-117.697200">
        <ele>823.112</ele>
        <time>2018-12-28T06:04:59Z</time>
      </trkpt>
      <trkpt lat="35.426110" lon="-117.696780">
        <ele>824.996</ele>
        <time>2018-12-28T06:05:19Z</time>
      </trkpt>
      <trkpt lat="35.426050" lon="-117.696080">
        <ele>827.380</ele>
        <time>2018-12-28T06:05:39Z</time>
      </trkpt>
      <trkpt lat="35.426000" lon="-117.695440">
        <ele>829.169</ele>
        <time>2018-12-28T06:05:59Z</time>
      </trkpt>
      <trkpt lat="35.425930" lon="-117.694650">
        <ele>831.644</ele>
        <time>2018-12-28T06:06:19Z</time>
      </trkpt>
      <trkpt lat="35.425900" lon="-117.694180">
        <ele>833.235</ele>
        <time>2018-12-28T06:06:39Z</time>
      </trkpt>
      <trkpt lat="35.425860" lon="-117.693690">
        <ele>835.086</ele>
        <time>2018-12-28T06:06:59Z</time>
      </trkpt>
      <trkpt lat="35.425810" lon="-117.693220">
        <ele>836.514</ele>
        <time>2018-12-28T06:07:19Z</time>
      </trkpt>
      <trkpt lat="35.425790" lon="-117.692870">
        <ele>837.308</ele>
        <time>2018-12-28T06:07:39Z</time>
      </trkpt>
      <trkpt lat="35.425770" lon="-117.692540">
        <ele>837.916</ele>
        <time>2018-12-28T06:07:59Z</time>
      </trkpt>
      <trkpt lat="35.425750" lon="-117.692150">
        <ele>838.534</ele>
        <time>2018-12-28T06:08:19Z</time>
      </trkpt>
      <trkpt lat="35.425730" lon="-117.691130">
        <ele>841.029</ele>
        <time>2018-12-28T06:08:39Z</time>
      </trkpt>
      <trkpt lat="35.425740" lon="-117.690600">
        <ele>842.959</ele>
        <time>2018-12-28T06:08:59Z</time>
      </trkpt>
      <trkpt lat="35.425750" lon="-117.690070">
        <ele>844.443</ele>
        <time>2018-12-28T06:09:19Z</time>
      </trkpt>
      <trkpt lat="35.425750" lon="-117.689920">
        <ele>844.817</ele>
        <time>2018-12-28T06:09:39Z</time>
      </trkpt>
      <trkpt lat="35.425750" lon="-117.689630">
        <ele>845.586</ele>
        <time>2018-12-28T06:09:59Z</time>
      </trkpt>
      <trkpt lat="35.425760" lon="-117.688440">
        <ele>848.691</ele>
        <time>2018-12-28T06:10:19Z</time>
      </trkpt>
      <trkpt lat="35.425770" lon="-117.688330">
        <ele>848.889</ele>
        <time>2018-12-28T06:10:39Z</time>
      </trkpt>
      <trkpt lat="35.425770" lon="-117.688170">
        <ele>849.106</ele>
        <time>2018-12-28T06:10:59Z</time>
      </trkpt>
      <trkpt lat="35.425780" lon="-117.687990">
        <ele>849.526</ele>
        <time>2018-12-28T06:11:19Z</time>
      </trkpt>
      <trkpt lat="35.425800" lon="-117.687780">
        <ele>849.908</ele>
        <time>2018-12-28T06:11:39Z</time>
      </trkpt>
      <trkpt lat="35.425810" lon="-117.687650">
        <ele>850.261</ele>
        <time>2018-12-28T06:11:59Z</time>
      </trkpt>
      <trkpt lat="35.425830" lon="-117.687460">
        <ele>850.559</ele>
        <time>2018-12-28T06:12:19Z</time>
      </trkpt>
      <trkpt lat="35.425850" lon="-117.687260">
        <ele>850.924</ele>
        <time>2018-12-28T06:12:39Z</time>
      </trkpt>
      <trkpt lat="35.425880" lon="-117.687090">
        <ele>851.284</ele>
        <time>2018-12-28T06:12:59Z</time>
      </trkpt>
      <trkpt lat="35.425920" lon="-117.686870">
        <ele>851.718</ele>
        <time>2018-12-28T06:13:19Z</time>
      </trkpt>
      <trkpt lat="35.425960" lon="-117.686650">
        <ele>852.132</ele>
        <time>2018-12-28T06:13:39Z</time>
      </trkpt>
      <trkpt lat="35.426000" lon="-117.686490">
        <ele>852.571</ele>
        <time>2018-12-28T06:13:59Z</time>
      </trkpt>
      <trkpt lat="35.426070" lon="-117.686280">
        <ele>853.136</ele>
        <time>2018-12-28T06:14:19Z</time>
      </trkpt>
      <trkpt lat="35.426120" lon="-117.686110">
        <ele>853.761</ele>
        <time>2018-12-28T06:14:39Z</time>
      </trkpt>
      <trkpt lat="35.426220" lon="-117.685830">
        <ele>854.721</ele>
        <time>2018-12-28T06:14:59Z</time>
      </trkpt>
      <trkpt lat="35.426290" lon="-117.685650">
        <ele>855.513</ele>
        <time>2018-12-28T06:15:19Z</time>
      </trkpt>
      <trkpt lat="35.426390" lon="-117.685400">
        <ele>856.408</ele>
        <time>2018-12-28T06:15:39Z</time>
      </trkpt>
      <trkpt lat="35.426530" lon="-117.685030">
        <ele>857.539</ele>
        <time>2018-12-28T06:15:59Z</time>
      </trkpt>
      <trkpt lat="35.426630" lon="-117.684770">
        <ele>858.467</ele>
        <time>2018-12-28T06:16:19Z</time>
      </trkpt>
      <trkpt lat="35.426780" lon="-117.684390">
        <ele>859.812</ele>
        <time>2018-12-28T06:16:39Z</time>
      </trkpt>
      <trkpt lat="35.426970" lon="-117.683950">
        <ele>861.462</ele>
        <time>2018-12-28T06:16:59Z</time>
      </trkpt>
      <trkpt lat="35.427080" lon="-117.683670">
        <ele>862.166</ele>
        <time>2018-12-28T06:17:19Z</time>
      </trkpt>
      <trkpt lat="35.427240" lon="-117.683300">
        <ele>863.170</ele>
        <time>2018-12-28T06:17:39Z</time>
      </trkpt>
      <trkpt lat="35.427530" lon="-117.682630">
        <ele>865.099</ele>
        <time>2018-12-28T06:17:59Z</time>
      </trkpt>
      <trkpt lat="35.427750" lon="-117.682130">
        <ele>866.654</ele>
        <time>2018-12-28T06:18:19Z</time>
      </trkpt>
      <trkpt lat="35.427900" lon="-117.681790">
        <ele>867.522</ele>
        <time>2018-12-28T06:18:39Z</time>
      </trkpt>
      <trkpt lat="35.427970" lon="-117.681640">
        <ele>867.862</ele>
        <time>2018-12-28T06:18:59Z</time>
      </trkpt>
      <trkpt lat="35.428030" lon="-117.681540">
        <ele>868.008</ele>
        <time>2018-12-28T06:19:19Z</time>
      </trkpt>
      <trkpt lat="35.428060" lon="-117.681470">
        <ele>868.108</ele>
        <time>2018-12-28T06:19:39Z</time>
      </trkpt>
      <trkpt lat="35.428110" lon="-117.681390">
        <ele>868.335</ele>
        <time>2018-12-28T06:19:59Z</time>
      </trkpt>
      <trkpt lat="35.428200" lon="-117.681240">
        <ele>868.833</ele>
        <time>2018-12-28T06:20:19Z</time>
      </trkpt>
      <trkpt lat="35.428320" lon="-117.681060">
        <ele>869.638</ele>
        <time>2018-12-28T06:20:39Z</time>
      </trkpt>
      <trkpt lat="35.428450" lon="-117.680890">
        <ele>870.568</ele>
        <time>2018-12-28T06:20:59Z</time>
      </trkpt>
      <trkpt lat="35.428570" lon="-117.680730">
        <ele>871.282</ele>
        <time>2018-12-28T06:21:19Z</time>
      </trkpt>
      <trkpt lat="35.428700" lon="-117.680580">
        <ele>872.136</ele>
        <time>2018-12-28T06:21:39Z</time>
      </trkpt>
      <trkpt lat="35.428810" lon="-117.680440">
        <ele>873.075</ele>
        <time>2018-12-28T06:21:59Z</time>
      </trkpt>
      <trkpt lat="35.428920" lon="-117.680340">
        <ele>873.670</ele>
        <time>2018-12-28T06:22:19Z</time>
      </trkpt>
      <trkpt lat="35.429000" lon="-117.680250">
        <ele>874.045</ele>
        <time>2018-12-28T06:22:39Z</time>
      </trkpt>
      <trkpt lat="35.429100" lon="-117.680150">
        <ele>874.647</ele>
        <time>2018-12-28T06:22:59Z</time>
      </trkpt>
      <trkpt lat="35.429180" lon="-117.680070">
        <ele>874.911</ele>
        <time>2018-12-28T06:23:19Z</time>
      </trkpt>
      <trkpt lat="35.429300" lon="-117.679960">
        <ele>875.508</ele>
        <time>2018-12-28T06:23:39Z</time>
      </trkpt>
      <trkpt lat="35.429360" lon="-117.679910">
        <ele>875.967</ele>
        <time>2018-12-28T06:23:59Z</time>
      </trkpt>
      <trkpt lat="35.429460" lon="-117.679820">
        <ele>876.465</ele>
        <time>2018-12-28T06:24:19Z</time>
      </trkpt>
      <trkpt lat="35.429580" lon="-117.679730">
        <ele>877.240</ele>
        <time>2018-12-28T06:24:39Z</time>
      </trkpt>
      <trkpt lat="35.429720" lon="-117.679630">
        <ele>878.130</ele>
        <time>2018-12-28T06:24:59Z</time>
      </trkpt>
      <trkpt lat="35.429890" lon="-117.679510">
        <ele>879.294</ele>
        <time>2018-12-28T06:25:19Z</time>
      </trkpt>
      <trkpt lat="35.430240" lon="-117.679290">
        <ele>880.798</ele>
        <time>2018-12-28T06:25:39Z</time>
      </trkpt>
      <trkpt lat="35.430740" lon="-117.678960">
        <ele>882.857</ele>
        <time>2018-12-28T06:25:59Z</time>
      </trkpt>
      <trkpt lat="35.431040" lon="-117.678760">
        <ele>884.282</ele>
        <time>2018-12-28T06:26:19Z</time>
      </trkpt>
      <trkpt lat="35.431160" lon="-117.678690">
        <ele>884.749</ele>
        <time>2018-12-28T06:26:39Z</time>
      </trkpt>
      <trkpt lat="35.431310" lon="-117.678590">
        <ele>885.502</ele>
        <time>2018-12-28T06:26:59Z</time>
      </trkpt>
      <trkpt lat="35.431390" lon="-117.678520">
        <ele>885.922</ele>
        <time>2018-12-28T06:27:19Z</time>
      </trkpt>
      <trkpt lat="35.431470" lon="-117.678450">
        <ele>886.308</ele>
        <time>2018-12-28T06:27:39Z</time>
      </trkpt>
      <trkpt lat="35.431510" lon="-117.678420">
        <ele>886.667</ele>
        <time>2018-12-28T06:27:59Z</time>
      </trkpt>
      <trkpt lat="35.431580" lon="-117.678340">
        <ele>887.155</ele>
        <time>2018-12-28T06:28:19Z</time>
      </trkpt>
      <trkpt lat="35.431630" lon="-117.678270">
        <ele>887.580</ele>
        <time>2018-12-28T06:28:39Z</time>
      </trkpt>
      <trkpt lat="35.431700" lon="-117.678180">
        <ele>888.140</ele>
        <time>2018-12-28T06:28:59Z</time>
      </trkpt>
      <trkpt lat="35.431780" lon="-117.678030">
        <ele>888.764</ele>
        <time>2018-12-28T06:29:19Z</time>
      </trkpt>
      <trkpt lat="35.431830" lon="-117.677910">
        <ele>889.048</ele>
        <time>2018-12-28T06:29:39Z</time>
      </trkpt>
      <trkpt lat="35.431890" lon="-117.677760">
        <ele>889.657</ele>
        <time>2018-12-28T06:29:59Z</time>
      </trkpt>
      <trkpt lat="35.431940" lon="-117.677610">
        <ele>890.252</ele>
        <time>2018-12-28T06:30:19Z</time>
      </trkpt>
      <trkpt lat="35.431990" lon="-117.677440">
        <ele>891.072</ele>
        <time>2018-12-28T06:30:39Z</time>
      </trkpt>
      <trkpt lat="35.432050" lon="-117.677230">
        <ele>892.013</ele>
        <time>2018-12-28T06:30:59Z</time>
      </trkpt>
      <trkpt lat="35.432120" lon="-117.677000">
        <ele>893.114</ele>
        <time>2018-12-28T06:31:19Z</time>
      </trkpt>
      <trkpt lat="35.432160" lon="-117.676810">
        <ele>894.008</ele>
        <time>2018-12-28T06:31:39Z</time>
      </trkpt>
      <trkpt lat="35.432220" lon="-117.676580">
        <ele>895.290</ele>
        <time>2018-12-28T06:31:59Z</time>
      </trkpt>
      <trkpt lat="35.432280" lon="-117.676270">
        <ele>896.658</ele>
        <time>2018-12-28T06:32:19Z</time>
      </trkpt>
      <trkpt lat="35.432320" lon="-117.676080">
        <ele>897.613</ele>
        <time>2018-12-28T06:32:39Z</time>
      </trkpt>
      <trkpt lat="35.432370" lon="-117.675750">
        <ele>899.093</ele>
        <time>2018-12-28T06:32:59Z</time>
      </trkpt>
      <trkpt lat="35.432400" lon="-117.675550">
        <ele>899.897</ele>
        <time>2018-12-28T06:33:19Z</time>
      </trkpt>
      <trkpt lat="35.432420" lon="-117.675350">
        <ele>900.541</ele>
        <time>2018-12-28T06:33:39Z</time>
      </trkpt>
      <trkpt lat="35.432460" lon="-117.675000">
        <ele>901.980</ele>
        <time>2018-12-28T06:33:59Z</time>
      </trkpt>
      <trkpt lat="35.432480" lon="-117.674860">
        <ele>902.525</ele>
        <time>2018-12-28T06:34:19Z</time>
      </trkpt>
      <trkpt lat="35.432520" lon="-117.674580">
        <ele>903.776</ele>
        <time>2018-12-28T06:34:39Z</time>
      </trkpt>
      <trkpt lat="35.432550" lon="-117.674430">
        <ele>904.290</ele>
        <time>2018-12-28T06:34:59Z</time>
      </trkpt>
      <trkpt lat="35.432600" lon="-117.674190">
        <ele>904.919</ele>
        <time>2018-12-28T06:35:19Z</time>
      </trkpt>
      <trkpt lat="35.432650" lon="-117.674000">
        <ele>905.508</ele>
        <time>2018-12-28T06:35:39Z</time>
      </trkpt>
      <trkpt lat="35.432680" lon="-117.673890">
        <ele>905.810</ele>
        <time>2018-12-28T06:35:59Z</time>
      </trkpt>
      <trkpt lat="35.432740" lon="-117.673690">
        <ele>906.568</ele>
        <time>2018-12-28T06:36:19Z</time>
      </trkpt>
      <trkpt lat="35.432790" lon="-117.673560">
        <ele>907.063</ele>
        <time>2018-12-28T06:36:39Z</time>
      </trkpt>
      <trkpt lat="35.432850" lon="-117.673440">
        <ele>907.633</ele>
        <time>2018-12-28T06:36:59Z</time>
      </trkpt>
      <trkpt lat="35.432950" lon="-117.673220">
        <ele>908.797</ele>
        <time>2018-12-28T06:37:19Z</time>
      </trkpt>
      <trkpt lat="35.433000" lon="-117.673100">
        <ele>909.371</ele>
        <time>2018-12-28T06:37:39Z</time>
      </trkpt>
      <trkpt lat="35.433070" lon="-117.672960">
        <ele>910.030</ele>
        <time>2018-12-28T06:37:59Z</time>
      </trkpt>
      <trkpt lat="35.433200" lon="-117.672680">
        <ele>910.975</ele>
        <time>2018-12-28T06:38:19Z</time>
      </trkpt>
      <trkpt lat="35.433250" lon="-117.672560">
        <ele>911.337</ele>
        <time>2018-12-28T06:38:39Z</time>
      </trkpt>
      <trkpt lat="35.433290" lon="-117.672470">
        <ele>911.549</ele>
        <time>2018-12-28T06:38:59Z</time>
      </trkpt>
      <trkpt lat="35.433330" lon="-117.672350">
        <ele>911.713</ele>
        <time>2018-12-28T06:39:19Z</time>
      </trkpt>
      <trkpt lat="35.433350" lon="-117.672260">
        <ele>911.808</ele>
        <time>2018-12-28T06:39:39Z</time>
      </trkpt>
      <trkpt lat="35.433360" lon="-117.672180">
        <ele>911.876</ele>
        <time>2018-12-28T06:39:59Z</time>
      </trkpt>
      <trkpt lat="35.433360" lon="-117.672110">
        <ele>911.844</ele>
        <time>2018-12-28T06:40:19Z</time>
      </trkpt>
      <trkpt lat="35.433370" lon="-117.672040">
        <ele>911.869</ele>
        <time>2018-12-28T06:40:39Z</time>
      </trkpt>
      <trkpt lat="35.433370" lon="-117.671710">
        <ele>911.529</ele>
        <time>2018-12-28T06:40:59Z</time>
      </trkpt>
      <trkpt lat="35.433370" lon="-117.671711">
        <ele>911.563</ele>
        <time>2018-12-28T06:41:19Z</time>
      </trkpt>
      <trkpt lat="35.433670" lon="-117.671640">
        <ele>913.187</ele>
        <time>2018-12-28T06:41:39Z</time>
      </trkpt>
      <trkpt lat="35.433800" lon="-117.671610">
        <ele>913.986</ele>
        <time>2018-12-28T06:41:59Z</time>
      </trkpt>
      <trkpt lat="35.433980" lon="-117.671560">
        <ele>915.351</ele>
        <time>2018-12-28T06:42:19Z</time>
      </trkpt>
      <trkpt lat="35.434130" lon="-117.671520">
        <ele>916.272</ele>
        <time>2018-12-28T06:42:39Z</time>
      </trkpt>
      <trkpt lat="35.434280" lon="-117.671470">
        <ele>917.013</ele>
        <time>2018-12-28T06:42:59Z</time>
      </trkpt>
      <trkpt lat="35.434310" lon="-117.671460">
        <ele>917.214</ele>
        <time>2018-12-28T06:43:19Z</time>
      </trkpt>
      <trkpt lat="35.434420" lon="-117.671420">
        <ele>918.308</ele>
        <time>2018-12-28T06:43:39Z</time>
      </trkpt>
      <trkpt lat="35.434640" lon="-117.671340">
        <ele>920.540</ele>
        <time>2018-12-28T06:43:59Z</time>
      </trkpt>
      <trkpt lat="35.434790" lon="-117.671280">
        <ele>921.918</ele>
        <time>2018-12-28T06:44:19Z</time>
      </trkpt>
      <trkpt lat="35.434930" lon="-117.671220">
        <ele>923.033</ele>
        <time>2018-12-28T06:44:39Z</time>
      </trkpt>
      <trkpt lat="35.435060" lon="-117.671160">
        <ele>924.013</ele>
        <time>2018-12-28T06:44:59Z</time>
      </trkpt>
      <trkpt lat="35.435190" lon="-117.671090">
        <ele>925.217</ele>
        <time>2018-12-28T06:45:19Z</time>
      </trkpt>
      <trkpt lat="35.435330" lon="-117.671030">
        <ele>926.611</ele>
        <time>2018-12-28T06:45:39Z</time>
      </trkpt>
      <trkpt lat="35.435550" lon="-117.670910">
        <ele>928.450</ele>
        <time>2018-12-28T06:45:59Z</time>
      </trkpt>
      <trkpt lat="35.435690" lon="-117.670830">
        <ele>929.135</ele>
        <time>2018-12-28T06:46:19Z</time>
      </trkpt>
      <trkpt lat="35.435700" lon="-117.670830">
        <ele>929.221</ele>
        <time>2018-12-28T06:46:39Z</time>
      </trkpt>
      <trkpt lat="35.435790" lon="-117.670770">
        <ele>929.841</ele>
        <time>2018-12-28T06:46:59Z</time>
      </trkpt>
      <trkpt lat="35.435840" lon="-117.670740">
        <ele>930.105</ele>
        <time>2018-12-28T06:47:19Z</time>
      </trkpt>
      <trkpt lat="35.435920" lon="-117.670690">
        <ele>930.608</ele>
        <time>2018-12-28T06:47:39Z</time>
      </trkpt>
      <trkpt lat="35.435980" lon="-117.670650">
        <ele>930.955</ele>
        <time>2018-12-28T06:47:59Z</time>
      </trkpt>
      <trkpt lat="35.436090" lon="-117.670570">
        <ele>931.633</ele>
        <time>2018-12-28T06:48:19Z</time>
      </trkpt>
      <trkpt lat="35.436170" lon="-117.670520">
        <ele>932.178</ele>
        <time>2018-12-28T06:48:39Z</time>
      </trkpt>
      <trkpt lat="35.436290" lon="-117.670440">
        <ele>933.028</ele>
        <time>2018-12-28T06:48:59Z</time>
      </trkpt>
      <trkpt lat="35.436350" lon="-117.670390">
        <ele>933.452</ele>
        <time>2018-12-28T06:49:19Z</time>
      </trkpt>
      <trkpt lat="35.436430" lon="-117.670330">
        <ele>934.076</ele>
        <time>2018-12-28T06:49:39Z</time>
      </trkpt>
      <trkpt lat="35.436550" lon="-117.670240">
        <ele>935.145</ele>
        <time>2018-12-28T06:49:59Z</time>
      </trkpt>
      <trkpt lat="35.436620" lon="-117.670190">
        <ele>935.810</ele>
        <time>2018-12-28T06:50:19Z</time>
      </trkpt>
      <trkpt lat="35.436700" lon="-117.670120">
        <ele>936.477</ele>
        <time>2018-12-28T06:50:39Z</time>
      </trkpt>
      <trkpt lat="35.436740" lon="-117.670090">
        <ele>936.761</ele>
        <time>2018-12-28T06:50:59Z</time>
      </trkpt>
      <trkpt lat="35.436840" lon="-117.670010">
        <ele>937.527</ele>
        <time>2018-12-28T06:51:19Z</time>
      </trkpt>
      <trkpt lat="35.436920" lon="-117.669940">
        <ele>938.208</ele>
        <time>2018-12-28T06:51:39Z</time>
      </trkpt>
      <trkpt lat="35.437000" lon="-117.669870">
        <ele>938.940</ele>
        <time>2018-12-28T06:51:59Z</time>
      </trkpt>
      <trkpt lat="35.437200" lon="-117.669680">
        <ele>941.148</ele>
        <time>2018-12-28T06:52:19Z</time>
      </trkpt>
      <trkpt lat="35.437640" lon="-117.669270">
        <ele>942.833</ele>
        <time>2018-12-28T06:52:39Z</time>
      </trkpt>
      <trkpt lat="35.437790" lon="-117.669130">
        <ele>944.073</ele>
        <time>2018-12-28T06:52:59Z</time>
      </trkpt>
      <trkpt lat="35.437880" lon="-117.669050">
        <ele>944.537</ele>
        <time>2018-12-28T06:53:19Z</time>
      </trkpt>
      <trkpt lat="35.438100" lon="-117.668850">
        <ele>946.291</ele>
        <time>2018-12-28T06:53:39Z</time>
      </trkpt>
      <trkpt lat="35.438310" lon="-117.668650">
        <ele>948.580</ele>
        <time>2018-12-28T06:53:59Z</time>
      </trkpt>
      <trkpt lat="35.438610" lon="-117.668370">
        <ele>950.865</ele>
        <time>2018-12-28T06:54:19Z</time>
      </trkpt>
      <trkpt lat="35.438880" lon="-117.668120">
        <ele>952.569</ele>
        <time>2018-12-28T06:54:39Z</time>
      </trkpt>
      <trkpt lat="35.439060" lon="-117.667950">
        <ele>954.104</ele>
        <time>2018-12-28T06:54:59Z</time>
      </trkpt>
      <trkpt lat="35.439200" lon="-117.667820">
        <ele>955.924</ele>
        <time>2018-12-28T06:55:19Z</time>
      </trkpt>
      <trkpt lat="35.439440" lon="-117.667590">
        <ele>957.508</ele>
        <time>2018-12-28T06:55:39Z</time>
      </trkpt>
      <trkpt lat="35.439740" lon="-117.667310">
        <ele>961.079</ele>
        <time>2018-12-28T06:55:59Z</time>
      </trkpt>
      <trkpt lat="35.439970" lon="-117.667090">
        <ele>963.387</ele>
        <time>2018-12-28T06:56:19Z</time>
      </trkpt>
      <trkpt lat="35.440250" lon="-117.666830">
        <ele>966.752</ele>
        <time>2018-12-28T06:56:39Z</time>
      </trkpt>
      <trkpt lat="35.440360" lon="-117.666720">
        <ele>967.862</ele>
        <time>2018-12-28T06:56:59Z</time>
      </trkpt>
      <trkpt lat="35.440450" lon="-117.666640">
        <ele>968.486</ele>
        <time>2018-12-28T06:57:19Z</time>
      </trkpt>
      <trkpt lat="35.440590" lon="-117.666500">
        <ele>969.090</ele>
        <time>2018-12-28T06:57:39Z</time>
      </trkpt>
      <trkpt lat="35.440680" lon="-117.666420">
        <ele>969.739</ele>
        <time>2018-12-28T06:57:59Z</time>
      </trkpt>
      <trkpt lat="35.440770" lon="-117.666330">
        <ele>970.654</ele>
        <time>2018-12-28T06:58:19Z</time>
      </trkpt>
      <trkpt lat="35.441020" lon="-117.666100">
        <ele>972.933</ele>
        <time>2018-12-28T06:58:39Z</time>
      </trkpt>
      <trkpt lat="35.441210" lon="-117.665920">
        <ele>974.523</ele>
        <time>2018-12-28T06:58:59Z</time>
      </trkpt>
      <trkpt lat="35.441390" lon="-117.665750">
        <ele>975.915</ele>
        <time>2018-12-28T06:59:19Z</time>
      </trkpt>
      <trkpt lat="35.441700" lon="-117.665460">
        <ele>978.708</ele>
        <time>2018-12-28T06:59:39Z</time>
      </trkpt>
      <trkpt lat="35.441930" lon="-117.665250">
        <ele>980.726</ele>
        <time>2018-12-28T06:59:59Z</time>
      </trkpt>
      <trkpt lat="35.442120" lon="-117.665080">
        <ele>982.424</ele>
        <time>2018-12-28T07:00:19Z</time>
      </trkpt>
      <trkpt lat="35.445330" lon="-117.662070">
        <ele>1004.459</ele>
        <time>2018-12-28T07:00:39Z</time>
      </trkpt>
      <trkpt lat="35.445590" lon="-117.661830">
        <ele>1005.149</ele>
        <time>2018-12-28T07:00:59Z</time>
      </trkpt>
      <trkpt lat="35.446400" lon="-117.661060">
        <ele>1008.513</ele>
        <time>2018-12-28T07:01:19Z</time>
      </trkpt>
      <trkpt lat="35.446840" lon="-117.660650">
        <ele>1010.087</ele>
        <time>2018-12-28T07:01:39Z</time>
      </trkpt>
      <trkpt lat="35.449480" lon="-117.658170">
        <ele>1027.446</ele>
        <time>2018-12-28T07:01:59Z</time>
      </trkpt>
      <trkpt lat="35.449630" lon="-117.658030">
        <ele>1028.721</ele>
        <time>2018-12-28T07:02:19Z</time>
      </trkpt>
      <trkpt lat="35.449750" lon="-117.657930">
        <ele>1029.563</ele>
        <time>2018-12-28T07:02:39Z</time>
      </trkpt>
      <trkpt lat="35.449920" lon="-117.657760">
        <ele>1031.244</ele>
        <time>2018-12-28T07:02:59Z</time>
      </trkpt>
      <trkpt lat="35.450040" lon="-117.657650">
        <ele>1032.318</ele>
        <time>2018-12-28T07:03:19Z</time>
      </trkpt>
      <trkpt lat="35.450180" lon="-117.657520">
        <ele>1033.408</ele>
        <time>2018-12-28T07:03:39Z</time>
      </trkpt>
      <trkpt lat="35.450280" lon="-117.657420">
        <ele>1034.089</ele>
        <time>2018-12-28T07:03:59Z</time>
      </trkpt>
      <trkpt lat="35.450350" lon="-117.657350">
        <ele>1034.487</ele>
        <time>2018-12-28T07:04:19Z</time>
      </trkpt>
      <trkpt lat="35.450430" lon="-117.657250">
        <ele>1034.982</ele>
        <time>2018-12-28T07:04:39Z</time>
      </trkpt>
      <trkpt lat="35.450510" lon="-117.657160">
        <ele>1035.432</ele>
        <time>2018-12-28T07:04:59Z</time>
      </trkpt>
      <trkpt lat="35.450620" lon="-117.657030">
        <ele>1036.276</ele>
        <time>2018-12-28T07:05:19Z</time>
      </trkpt>
      <trkpt lat="35.450640" lon="-117.657010">
        <ele>1036.530</ele>
        <time>2018-12-28T07:05:39Z</time>
      </trkpt>
      <trkpt lat="35.450660" lon="-117.656980">
        <ele>1036.729</ele>
        <time>2018-12-28T07:05:59Z</time>
      </trkpt>
      <trkpt lat="35.450750" lon="-117.656850">
        <ele>1038.264</ele>
        <time>2018-12-28T07:06:19Z</time>
      </trkpt>
      <trkpt lat="35.450860" lon="-117.656700">
        <ele>1039.435</ele>
        <time>2018-12-28T07:06:39Z</time>
      </trkpt>
      <trkpt lat="35.450900" lon="-117.656630">
        <ele>1039.786</ele>
        <time>2018-12-28T07:06:59Z</time>
      </trkpt>
      <trkpt lat="35.450960" lon="-117.656540">
        <ele>1040.214</ele>
        <time>2018-12-28T07:07:19Z</time>
      </trkpt>
      <trkpt lat="35.451120" lon="-117.656310">
        <ele>1041.208</ele>
        <time>2018-12-28T07:07:39Z</time>
      </trkpt>
      <trkpt lat="35.451210" lon="-117.656180">
        <ele>1042.376</ele>
        <time>2018-12-28T07:07:59Z</time>
      </trkpt>
      <trkpt lat="35.451250" lon="-117.656120">
        <ele>1043.114</ele>
        <time>2018-12-28T07:08:19Z</time>
      </trkpt>
      <trkpt lat="35.451340" lon="-117.655990">
        <ele>1045.029</ele>
        <time>2018-12-28T07:08:39Z</time>
      </trkpt>
      <trkpt lat="35.451460" lon="-117.655840">
        <ele>1046.039</ele>
        <time>2018-12-28T07:08:59Z</time>
      </trkpt>
      <trkpt lat="35.451540" lon="-117.655730">
        <ele>1046.523</ele>
        <time>2018-12-28T07:09:19Z</time>
      </trkpt>
      <trkpt lat="35.451630" lon="-117.655620">
        <ele>1046.987</ele>
        <time>2018-12-28T07:09:39Z</time>
      </trkpt>
      <trkpt lat="35.451710" lon="-117.655530">
        <ele>1047.576</ele>
        <time>2018-12-28T07:09:59Z</time>
      </trkpt>
      <trkpt lat="35.451860" lon="-117.655380">
        <ele>1049.361</ele>
        <time>2018-12-28T07:10:19Z</time>
      </trkpt>
      <trkpt lat="35.451950" lon="-117.655290">
        <ele>1050.827</ele>
        <time>2018-12-28T07:10:39Z</time>
      </trkpt>
      <trkpt lat="35.452020" lon="-117.655230">
        <ele>1051.868</ele>
        <time>2018-12-28T07:10:59Z</time>
      </trkpt>
      <trkpt lat="35.452090" lon="-117.655160">
        <ele>1052.614</ele>
        <time>2018-12-28T07:11:19Z</time>
      </trkpt>
      <trkpt lat="35.452180" lon="-117.655080">
        <ele>1053.108</ele>
        <time>2018-12-28T07:11:39Z</time>
      </trkpt>
      <trkpt lat="35.452250" lon="-117.655020">
        <ele>1053.475</ele>
        <time>2018-12-28T07:11:59Z</time>
      </trkpt>
      <trkpt lat="35.452330" lon="-117.654960">
        <ele>1053.953</ele>
        <time>2018-12-28T07:12:19Z</time>
      </trkpt>
      <trkpt lat="35.452370" lon="-117.654930">
        <ele>1054.178</ele>
        <time>2018-12-28T07:12:39Z</time>
      </trkpt>
      <trkpt lat="35.452430" lon="-117.654890">
        <ele>1054.298</ele>
        <time>2018-12-28T07:12:59Z</time>
      </trkpt>
      <trkpt lat="35.452500" lon="-117.654840">
        <ele>1054.392</ele>
        <time>2018-12-28T07:13:19Z</time>
      </trkpt>
      <trkpt lat="35.452690" lon="-117.654720">
        <ele>1054.746</ele>
        <time>2018-12-28T07:13:39Z</time>
      </trkpt>
      <trkpt lat="35.452700" lon="-117.654710">
        <ele>1054.735</ele>
        <time>2018-12-28T07:13:59Z</time>
      </trkpt>
      <trkpt lat="35.452860" lon="-117.654620">
        <ele>1054.760</ele>
        <time>2018-12-28T07:14:19Z</time>
      </trkpt>
      <trkpt lat="35.452890" lon="-117.654610">
        <ele>1054.765</ele>
        <time>2018-12-28T07:14:39Z</time>
      </trkpt>
      <trkpt lat="35.453090" lon="-117.654520">
        <ele>1054.368</ele>
        <time>2018-12-28T07:14:59Z</time>
      </trkpt>
      <trkpt lat="35.453250" lon="-117.654450">
        <ele>1053.214</ele>
        <time>2018-12-28T07:15:19Z</time>
      </trkpt>
      <trkpt lat="35.453540" lon="-117.654360">
        <ele>1050.308</ele>
        <time>2018-12-28T07:15:39Z</time>
      </trkpt>
      <trkpt lat="35.453570" lon="-117.654350">
        <ele>1049.919</ele>
        <time>2018-12-28T07:15:59Z</time>
      </trkpt>
      <trkpt lat="35.453680" lon="-117.654330">
        <ele>1048.817</ele>
        <time>2018-12-28T07:16:19Z</time>
      </trkpt>
      <trkpt lat="35.453800" lon="-117.654290">
        <ele>1047.662</ele>
        <time>2018-12-28T07:16:39Z</time>
      </trkpt>
      <trkpt lat="35.453880" lon="-117.654280">
        <ele>1047.032</ele>
        <time>2018-12-28T07:16:59Z</time>
      </trkpt>
      <trkpt lat="35.453950" lon="-117.654270">
        <ele>1046.456</ele>
        <time>2018-12-28T07:17:19Z</time>
      </trkpt>
      <trkpt lat="35.454100" lon="-117.654250">
        <ele>1045.160</ele>
        <time>2018-12-28T07:17:39Z</time>
      </trkpt>
      <trkpt lat="35.454250" lon="-117.654230">
        <ele>1043.939</ele>
        <time>2018-12-28T07:17:59Z</time>
      </trkpt>
      <trkpt lat="35.454290" lon="-117.654230">
        <ele>1043.524</ele>
        <time>2018-12-28T07:18:19Z</time>
      </trkpt>
      <trkpt lat="35.454370" lon="-117.654220">
        <ele>1043.178</ele>
        <time>2018-12-28T07:18:39Z</time>
      </trkpt>
      <trkpt lat="35.454450" lon="-117.654220">
        <ele>1042.833</ele>
        <time>2018-12-28T07:18:59Z</time>
      </trkpt>
      <trkpt lat="35.454520" lon="-117.654220">
        <ele>1042.626</ele>
        <time>2018-12-28T07:19:19Z</time>
      </trkpt>
      <trkpt lat="35.454630" lon="-117.654230">
        <ele>1042.208</ele>
        <time>2018-12-28T07:19:39Z</time>
      </trkpt>
      <trkpt lat="35.454730" lon="-117.654230">
        <ele>1042.010</ele>
        <time>2018-12-28T07:19:59Z</time>
      </trkpt>
      <trkpt lat="35.454850" lon="-117.654250">
        <ele>1041.848</ele>
        <time>2018-12-28T07:20:19Z</time>
      </trkpt>
      <trkpt lat="35.455000" lon="-117.654270">
        <ele>1041.713</ele>
        <time>2018-12-28T07:20:39Z</time>
      </trkpt>
      <trkpt lat="35.455350" lon="-117.654330">
        <ele>1041.793</ele>
        <time>2018-12-28T07:20:59Z</time>
      </trkpt>
      <trkpt lat="35.455560" lon="-117.654380">
        <ele>1041.887</ele>
        <time>2018-12-28T07:21:19Z</time>
      </trkpt>
      <trkpt lat="35.456220" lon="-117.654530">
        <ele>1042.561</ele>
        <time>2018-12-28T07:21:39Z</time>
      </trkpt>
      <trkpt lat="35.457130" lon="-117.654720">
        <ele>1045.980</ele>
        <time>2018-12-28T07:21:59Z</time>
      </trkpt>
      <trkpt lat="35.457880" lon="-117.654870">
        <ele>1048.885</ele>
        <time>2018-12-28T07:22:19Z</time>
      </trkpt>
      <trkpt lat="35.458640" lon="-117.655040">
        <ele>1052.742</ele>
        <time>2018-12-28T07:22:39Z</time>
      </trkpt>
      <trkpt lat="35.458910" lon="-117.655100">
        <ele>1053.522</ele>
        <time>2018-12-28T07:22:59Z</time>
      </trkpt>
      <trkpt lat="35.459060" lon="-117.655140">
        <ele>1054.014</ele>
        <time>2018-12-28T07:23:19Z</time>
      </trkpt>
      <trkpt lat="35.459290" lon="-117.655190">
        <ele>1054.608</ele>
        <time>2018-12-28T07:23:39Z</time>
      </trkpt>
      <trkpt lat="35.459410" lon="-117.655210">
        <ele>1055.337</ele>
        <time>2018-12-28T07:23:59Z</time>
      </trkpt>
      <trkpt lat="35.459690" lon="-117.655270">
        <ele>1057.025</ele>
        <time>2018-12-28T07:24:19Z</time>
      </trkpt>
      <trkpt lat="35.460000" lon="-117.655330">
        <ele>1059.120</ele>
        <time>2018-12-28T07:24:39Z</time>
      </trkpt>
      <trkpt lat="35.460250" lon="-117.655370">
        <ele>1060.440</ele>
        <time>2018-12-28T07:24:59Z</time>
      </trkpt>
      <trkpt lat="35.460300" lon="-117.655380">
        <ele>1060.534</ele>
        <time>2018-12-28T07:25:19Z</time>
      </trkpt>
      <trkpt lat="35.460460" lon="-117.655390">
        <ele>1061.298</ele>
        <time>2018-12-28T07:25:39Z</time>
      </trkpt>
      <trkpt lat="35.460630" lon="-117.655400">
        <ele>1061.977</ele>
        <time>2018-12-28T07:25:59Z</time>
      </trkpt>
      <trkpt lat="35.460830" lon="-117.655400">
        <ele>1063.192</ele>
        <time>2018-12-28T07:26:19Z</time>
      </trkpt>
      <trkpt lat="35.460960" lon="-117.655400">
        <ele>1064.058</ele>
        <time>2018-12-28T07:26:39Z</time>
      </trkpt>
      <trkpt lat="35.461210" lon="-117.655380">
        <ele>1065.452</ele>
        <time>2018-12-28T07:26:59Z</time>
      </trkpt>
      <trkpt lat="35.461380" lon="-117.655360">
        <ele>1066.017</ele>
        <time>2018-12-28T07:27:19Z</time>
      </trkpt>
      <trkpt lat="35.461910" lon="-117.655300">
        <ele>1067.808</ele>
        <time>2018-12-28T07:27:39Z</time>
      </trkpt>
      <trkpt lat="35.462670" lon="-117.655220">
        <ele>1069.318</ele>
        <time>2018-12-28T07:27:59Z</time>
      </trkpt>
      <trkpt lat="35.462810" lon="-117.655200">
        <ele>1069.656</ele>
        <time>2018-12-28T07:28:19Z</time>
      </trkpt>
      <trkpt lat="35.463430" lon="-117.655120">
        <ele>1069.911</ele>
        <time>2018-12-28T07:28:39Z</time>
      </trkpt>
      <trkpt lat="35.463780" lon="-117.655080">
        <ele>1070.011</ele>
        <time>2018-12-28T07:28:59Z</time>
      </trkpt>
      <trkpt lat="35.463990" lon="-117.655060">
        <ele>1069.965</ele>
        <time>2018-12-28T07:29:19Z</time>
      </trkpt>
      <trkpt lat="35.464350" lon="-117.655020">
        <ele>1069.959</ele>
        <time>2018-12-28T07:29:39Z</time>
      </trkpt>
      <trkpt lat="35.464500" lon="-117.655000">
        <ele>1069.818</ele>
        <time>2018-12-28T07:29:59Z</time>
      </trkpt>
      <trkpt lat="35.465400" lon="-117.654900">
        <ele>1069.313</ele>
        <time>2018-12-28T07:30:19Z</time>
      </trkpt>
      <trkpt lat="35.466040" lon="-117.654820">
        <ele>1068.953</ele>
        <time>2018-12-28T07:30:39Z</time>
      </trkpt>
      <trkpt lat="35.467300" lon="-117.654670">
        <ele>1068.904</ele>
        <time>2018-12-28T07:30:59Z</time>
      </trkpt>
      <trkpt lat="35.468240" lon="-117.654560">
        <ele>1066.714</ele>
        <time>2018-12-28T07:31:19Z</time>
      </trkpt>
      <trkpt lat="35.469160" lon="-117.654450">
        <ele>1066.108</ele>
        <time>2018-12-28T07:31:39Z</time>
      </trkpt>
      <trkpt lat="35.470370" lon="-117.654310">
        <ele>1065.028</ele>
        <time>2018-12-28T07:31:59Z</time>
      </trkpt>
      <trkpt lat="35.472260" lon="-117.654090">
        <ele>1063.696</ele>
        <time>2018-12-28T07:32:19Z</time>
      </trkpt>
      <trkpt lat="35.472270" lon="-117.654090">
        <ele>1063.641</ele>
        <time>2018-12-28T07:32:39Z</time>
      </trkpt>
      <trkpt lat="35.473350" lon="-117.653950">
        <ele>1060.821</ele>
        <time>2018-12-28T07:32:59Z</time>
      </trkpt>
      <trkpt lat="35.473346" lon="-117.653954">
        <ele>1060.825</ele>
        <time>2018-12-28T07:33:19Z</time>
      </trkpt>
      <trkpt lat="35.473360" lon="-117.653850">
        <ele>1060.429</ele>
        <time>2018-12-28T07:33:39Z</time>
      </trkpt>
      <trkpt lat="35.473370" lon="-117.653710">
        <ele>1059.938</ele>
        <time>2018-12-28T07:33:59Z</time>
      </trkpt>
      <trkpt lat="35.473350" lon="-117.653520">
        <ele>1059.253</ele>
        <time>2018-12-28T07:34:19Z</time>
      </trkpt>
      <trkpt lat="35.473330" lon="-117.653220">
        <ele>1057.858</ele>
        <time>2018-12-28T07:34:39Z</time>
      </trkpt>
      <trkpt lat="35.473320" lon="-117.652940">
        <ele>1056.552</ele>
        <time>2018-12-28T07:34:59Z</time>
      </trkpt>
      <trkpt lat="35.473320" lon="-117.652780">
        <ele>1055.717</ele>
        <time>2018-12-28T07:35:19Z</time>
      </trkpt>
      <trkpt lat="35.473320" lon="-117.652540">
        <ele>1054.408</ele>
        <time>2018-12-28T07:35:39Z</time>
      </trkpt>
      <trkpt lat="35.473340" lon="-117.652350">
        <ele>1053.298</ele>
        <time>2018-12-28T07:35:59Z</time>
      </trkpt>
      <trkpt lat="35.473350" lon="-117.652220">
        <ele>1052.466</ele>
        <time>2018-12-28T07:36:19Z</time>
      </trkpt>
      <trkpt lat="35.473380" lon="-117.652030">
        <ele>1051.291</ele>
        <time>2018-12-28T07:36:39Z</time>
      </trkpt>
      <trkpt lat="35.473420" lon="-117.651830">
        <ele>1050.121</ele>
        <time>2018-12-28T07:36:59Z</time>
      </trkpt>
      <trkpt lat="35.473490" lon="-117.651590">
        <ele>1048.785</ele>
        <time>2018-12-28T07:37:19Z</time>
      </trkpt>
      <trkpt lat="35.473550" lon="-117.651410">
        <ele>1047.789</ele>
        <time>2018-12-28T07:37:39Z</time>
      </trkpt>
      <trkpt lat="35.473590" lon="-117.651310">
        <ele>1047.178</ele>
        <time>2018-12-28T07:37:59Z</time>
      </trkpt>
      <trkpt lat="35.473670" lon="-117.651110">
        <ele>1046.023</ele>
        <time>2018-12-28T07:38:19Z</time>
      </trkpt>
      <trkpt lat="35.473740" lon="-117.650960">
        <ele>1045.256</ele>
        <time>2018-12-28T07:38:39Z</time>
      </trkpt>
      <trkpt lat="35.473820" lon="-117.650820">
        <ele>1044.459</ele>
        <time>2018-12-28T07:38:59Z</time>
      </trkpt>
      <trkpt lat="35.473900" lon="-117.650680">
        <ele>1043.614</ele>
        <time>2018-12-28T07:39:19Z</time>
      </trkpt>
      <trkpt lat="35.473940" lon="-117.650620">
        <ele>1043.308</ele>
        <time>2018-12-28T07:39:39Z</time>
      </trkpt>
      <trkpt lat="35.474010" lon="-117.650520">
        <ele>1042.838</ele>
        <time>2018-12-28T07:39:59Z</time>
      </trkpt>
      <trkpt lat="35.474090" lon="-117.650420">
        <ele>1042.436</ele>
        <time>2018-12-28T07:40:19Z</time>
      </trkpt>
      <trkpt lat="35.474170" lon="-117.650320">
        <ele>1041.921</ele>
        <time>2018-12-28T07:40:39Z</time>
      </trkpt>
      <trkpt lat="35.474270" lon="-117.650220">
        <ele>1041.531</ele>
        <time>2018-12-28T07:40:59Z</time>
      </trkpt>
      <trkpt lat="35.474370" lon="-117.650110">
        <ele>1041.025</ele>
        <time>2018-12-28T07:41:19Z</time>
      </trkpt>
      <trkpt lat="35.474470" lon="-117.650020">
        <ele>1040.629</ele>
        <time>2018-12-28T07:41:39Z</time>
      </trkpt>
      <trkpt lat="35.474580" lon="-117.649930">
        <ele>1040.278</ele>
        <time>2018-12-28T07:41:59Z</time>
      </trkpt>
      <trkpt lat="35.475230" lon="-117.649420">
        <ele>1038.093</ele>
        <time>2018-12-28T07:42:19Z</time>
      </trkpt>
      <trkpt lat="35.476180" lon="-117.648660">
        <ele>1032.795</ele>
        <time>2018-12-28T07:42:39Z</time>
      </trkpt>
      <trkpt lat="35.476450" lon="-117.648450">
        <ele>1031.149</ele>
        <time>2018-12-28T07:42:59Z</time>
      </trkpt>
      <trkpt lat="35.476660" lon="-117.648290">
        <ele>1030.023</ele>
        <time>2018-12-28T07:43:19Z</time>
      </trkpt>
      <trkpt lat="35.477910" lon="-117.647320">
        <ele>1023.008</ele>
        <time>2018-12-28T07:43:39Z</time>
      </trkpt>
      <trkpt lat="35.478120" lon="-117.647150">
        <ele>1021.772</ele>
        <time>2018-12-28T07:43:59Z</time>
      </trkpt>
      <trkpt lat="35.478340" lon="-117.646980">
        <ele>1020.350</ele>
        <time>2018-12-28T07:44:19Z</time>
      </trkpt>
      <trkpt lat="35.478870" lon="-117.646560">
        <ele>1016.935</ele>
        <time>2018-12-28T07:44:39Z</time>
      </trkpt>
      <trkpt lat="35.479370" lon="-117.646170">
        <ele>1013.715</ele>
        <time>2018-12-28T07:44:59Z</time>
      </trkpt>
      <trkpt lat="35.481250" lon="-117.644740">
        <ele>1005.489</ele>
        <time>2018-12-28T07:45:19Z</time>
      </trkpt>
      <trkpt lat="35.481550" lon="-117.644480">
        <ele>1003.553</ele>
        <time>2018-12-28T07:45:39Z</time>
      </trkpt>
      <trkpt lat="35.481810" lon="-117.644140">
        <ele>1002.122</ele>
        <time>2018-12-28T07:45:59Z</time>
      </trkpt>
      <trkpt lat="35.482200" lon="-117.643450">
        <ele>1001.797</ele>
        <time>2018-12-28T07:46:19Z</time>
      </trkpt>
      <trkpt lat="35.482350" lon="-117.643180">
        <ele>1001.545</ele>
        <time>2018-12-28T07:46:39Z</time>
      </trkpt>
      <trkpt lat="35.482640" lon="-117.642620">
        <ele>1000.347</ele>
        <time>2018-12-28T07:46:59Z</time>
      </trkpt>
      <trkpt lat="35.483470" lon="-117.641040">
        <ele>996.611</ele>
        <time>2018-12-28T07:47:19Z</time>
      </trkpt>
      <trkpt lat="35.484410" lon="-117.639250">
        <ele>992.208</ele>
        <time>2018-12-28T07:47:39Z</time>
      </trkpt>
      <trkpt lat="35.484820" lon="-117.638460">
        <ele>990.267</ele>
        <time>2018-12-28T07:47:59Z</time>
      </trkpt>
      <trkpt lat="35.485050" lon="-117.638040">
        <ele>989.055</ele>
        <time>2018-12-28T07:48:19Z</time>
      </trkpt>
      <trkpt lat="35.485400" lon="-117.637370">
        <ele>987.550</ele>
        <time>2018-12-28T07:48:39Z</time>
      </trkpt>
      <trkpt lat="35.485450" lon="-117.637270">
        <ele>987.450</ele>
        <time>2018-12-28T07:48:59Z</time>
      </trkpt>
      <trkpt lat="35.485590" lon="-117.637020">
        <ele>986.954</ele>
        <time>2018-12-28T07:49:19Z</time>
      </trkpt>
      <trkpt lat="35.485680" lon="-117.636800">
        <ele>986.668</ele>
        <time>2018-12-28T07:49:39Z</time>
      </trkpt>
      <trkpt lat="35.485990" lon="-117.636240">
        <ele>985.587</ele>
        <time>2018-12-28T07:49:59Z</time>
      </trkpt>
      <trkpt lat="35.486160" lon="-117.635930">
        <ele>984.892</ele>
        <time>2018-12-28T07:50:19Z</time>
      </trkpt>
      <trkpt lat="35.486380" lon="-117.635540">
        <ele>984.178</ele>
        <time>2018-12-28T07:50:39Z</time>
      </trkpt>
      <trkpt lat="35.486440" lon="-117.635450">
        <ele>983.933</ele>
        <time>2018-12-28T07:50:59Z</time>
      </trkpt>
      <trkpt lat="35.486520" lon="-117.635320">
        <ele>983.626</ele>
        <time>2018-12-28T07:51:19Z</time>
      </trkpt>
      <trkpt lat="35.486590" lon="-117.635220">
        <ele>983.408</ele>
        <time>2018-12-28T07:51:39Z</time>
      </trkpt>
      <trkpt lat="35.486660" lon="-117.635110">
        <ele>983.270</ele>
        <time>2018-12-28T07:51:59Z</time>
      </trkpt>
      <trkpt lat="35.486870" lon="-117.634830">
        <ele>982.728</ele>
        <time>2018-12-28T07:52:19Z</time>
      </trkpt>
      <trkpt lat="35.487030" lon="-117.634620">
        <ele>982.183</ele>
        <time>2018-12-28T07:52:39Z</time>
      </trkpt>
      <trkpt lat="35.487170" lon="-117.634450">
        <ele>981.563</ele>
        <time>2018-12-28T07:52:59Z</time>
      </trkpt>
      <trkpt lat="35.487260" lon="-117.634340">
        <ele>981.157</ele>
        <time>2018-12-28T07:53:19Z</time>
      </trkpt>
      <trkpt lat="35.487410" lon="-117.634160">
        <ele>980.411</ele>
        <time>2018-12-28T07:53:39Z</time>
      </trkpt>
      <trkpt lat="35.487600" lon="-117.633960">
        <ele>979.620</ele>
        <time>2018-12-28T07:53:59Z</time>
      </trkpt>
      <trkpt lat="35.487800" lon="-117.633760">
        <ele>978.825</ele>
        <time>2018-12-28T07:54:19Z</time>
      </trkpt>
      <trkpt lat="35.487950" lon="-117.633620">
        <ele>978.341</ele>
        <time>2018-12-28T07:54:39Z</time>
      </trkpt>
      <trkpt lat="35.488460" lon="-117.633170">
        <ele>976.681</ele>
        <time>2018-12-28T07:54:59Z</time>
      </trkpt>
      <trkpt lat="35.488960" lon="-117.632740">
        <ele>974.909</ele>
        <time>2018-12-28T07:55:19Z</time>
      </trkpt>
      <trkpt lat="35.489330" lon="-117.632410">
        <ele>973.508</ele>
        <time>2018-12-28T07:55:39Z</time>
      </trkpt>
      <trkpt lat="35.490090" lon="-117.631740">
        <ele>970.927</ele>
        <time>2018-12-28T07:55:59Z</time>
      </trkpt>
      <trkpt lat="35.491390" lon="-117.630600">
        <ele>966.915</ele>
        <time>2018-12-28T07:56:19Z</time>
      </trkpt>
      <trkpt lat="35.491510" lon="-117.630500">
        <ele>966.570</ele>
        <time>2018-12-28T07:56:39Z</time>
      </trkpt>
      <trkpt lat="35.491512" lon="-117.630497">
        <ele>966.560</ele>
        <time>2018-12-28T07:56:59Z</time>
      </trkpt>
      <trkpt lat="35.492040" lon="-117.630030">
        <ele>965.094</ele>
        <time>2018-12-28T07:57:19Z</time>
      </trkpt>
      <trkpt lat="35.492260" lon="-117.629830">
        <ele>964.448</ele>
        <time>2018-12-28T07:57:39Z</time>
      </trkpt>
      <trkpt lat="35.493020" lon="-117.629170">
        <ele>961.977</ele>
        <time>2018-12-28T07:57:59Z</time>
      </trkpt>
      <trkpt lat="35.493680" lon="-117.628590">
        <ele>959.662</ele>
        <time>2018-12-28T07:58:19Z</time>
      </trkpt>
      <trkpt lat="35.494270" lon="-117.628070">
        <ele>957.869</ele>
        <time>2018-12-28T07:58:39Z</time>
      </trkpt>
      <trkpt lat="35.494710" lon="-117.627690">
        <ele>956.604</ele>
        <time>2018-12-28T07:58:59Z</time>
      </trkpt>
      <trkpt lat="35.495190" lon="-117.627260">
        <ele>955.524</ele>
        <time>2018-12-28T07:59:19Z</time>
      </trkpt>
      <trkpt lat="35.496450" lon="-117.626150">
        <ele>951.908</ele>
        <time>2018-12-28T07:59:39Z</time>
      </trkpt>
      <trkpt lat="35.496920" lon="-117.625740">
        <ele>951.199</ele>
        <time>2018-12-28T07:59:59Z</time>
      </trkpt>
      <trkpt lat="35.497300" lon="-117.625400">
        <ele>949.357</ele>
        <time>2018-12-28T08:00:19Z</time>
      </trkpt>
      <trkpt lat="35.498740" lon="-117.624140">
        <ele>938.972</ele>
        <time>2018-12-28T08:00:39Z</time>
      </trkpt>
      <trkpt lat="35.499060" lon="-117.623850">
        <ele>938.152</ele>
        <time>2018-12-28T08:00:59Z</time>
      </trkpt>
      <trkpt lat="35.500010" lon="-117.623010">
        <ele>939.796</ele>
        <time>2018-12-28T08:01:19Z</time>
      </trkpt>
      <trkpt lat="35.500210" lon="-117.622850">
        <ele>939.170</ele>
        <time>2018-12-28T08:01:39Z</time>
      </trkpt>
      <trkpt lat="35.500380" lon="-117.622690">
        <ele>938.779</ele>
        <time>2018-12-28T08:01:59Z</time>
      </trkpt>
      <trkpt lat="35.500540" lon="-117.622550">
        <ele>937.934</ele>
        <time>2018-12-28T08:02:19Z</time>
      </trkpt>
      <trkpt lat="35.500770" lon="-117.622320">
        <ele>936.522</ele>
        <time>2018-12-28T08:02:39Z</time>
      </trkpt>
      <trkpt lat="35.501110" lon="-117.621990">
        <ele>935.362</ele>
        <time>2018-12-28T08:02:59Z</time>
      </trkpt>
      <trkpt lat="35.501430" lon="-117.621680">
        <ele>935.008</ele>
        <time>2018-12-28T08:03:19Z</time>
      </trkpt>
      <trkpt lat="35.501710" lon="-117.621410">
        <ele>933.508</ele>
        <time>2018-12-28T08:03:39Z</time>
      </trkpt>
      <trkpt lat="35.502090" lon="-117.621040">
        <ele>931.645</ele>
        <time>2018-12-28T08:03:59Z</time>
      </trkpt>
      <trkpt lat="35.502260" lon="-117.620880">
        <ele>930.983</ele>
        <time>2018-12-28T08:04:19Z</time>
      </trkpt>
      <trkpt lat="35.502650" lon="-117.620500">
        <ele>929.118</ele>
        <time>2018-12-28T08:04:39Z</time>
      </trkpt>
      <trkpt lat="35.503230" lon="-117.619930">
        <ele>926.588</ele>
        <time>2018-12-28T08:04:59Z</time>
      </trkpt>
      <trkpt lat="35.503980" lon="-117.619210">
        <ele>922.932</ele>
        <time>2018-12-28T08:05:19Z</time>
      </trkpt>
      <trkpt lat="35.504490" lon="-117.618700">
        <ele>920.746</ele>
        <time>2018-12-28T08:05:39Z</time>
      </trkpt>
      <trkpt lat="35.505010" lon="-117.618190">
        <ele>918.835</ele>
        <time>2018-12-28T08:05:59Z</time>
      </trkpt>
      <trkpt lat="35.505490" lon="-117.617730">
        <ele>916.940</ele>
        <time>2018-12-28T08:06:19Z</time>
      </trkpt>
      <trkpt lat="35.506010" lon="-117.617220">
        <ele>915.031</ele>
        <time>2018-12-28T08:06:39Z</time>
      </trkpt>
      <trkpt lat="35.506560" lon="-117.616680">
        <ele>913.861</ele>
        <time>2018-12-28T08:06:59Z</time>
      </trkpt>
      <trkpt lat="35.508050" lon="-117.615220">
        <ele>910.407</ele>
        <time>2018-12-28T08:07:19Z</time>
      </trkpt>
      <trkpt lat="35.509060" lon="-117.614250">
        <ele>912.508</ele>
        <time>2018-12-28T08:07:39Z</time>
      </trkpt>
      <trkpt lat="35.509290" lon="-117.614010">
        <ele>913.616</ele>
        <time>2018-12-28T08:07:59Z</time>
      </trkpt>
      <trkpt lat="35.509470" lon="-117.613830">
        <ele>915.074</ele>
        <time>2018-12-28T08:08:19Z</time>
      </trkpt>
      <trkpt lat="35.509990" lon="-117.613340">
        <ele>919.229</ele>
        <time>2018-12-28T08:08:39Z</time>
      </trkpt>
      <trkpt lat="35.510330" lon="-117.613000">
        <ele>922.259</ele>
        <time>2018-12-28T08:08:59Z</time>
      </trkpt>
      <trkpt lat="35.511290" lon="-117.612070">
        <ele>929.713</ele>
        <time>2018-12-28T08:09:19Z</time>
      </trkpt>
      <trkpt lat="35.511910" lon="-117.611480">
        <ele>933.117</ele>
        <time>2018-12-28T08:09:39Z</time>
      </trkpt>
      <trkpt lat="35.512500" lon="-117.610880">
        <ele>934.766</ele>
        <time>2018-12-28T08:09:59Z</time>
      </trkpt>
      <trkpt lat="35.513310" lon="-117.610090">
        <ele>938.081</ele>
        <time>2018-12-28T08:10:19Z</time>
      </trkpt>
      <trkpt lat="35.514030" lon="-117.609390">
        <ele>941.297</ele>
        <time>2018-12-28T08:10:39Z</time>
      </trkpt>
      <trkpt lat="35.514210" lon="-117.609220">
        <ele>942.023</ele>
        <time>2018-12-28T08:10:59Z</time>
      </trkpt>
      <trkpt lat="35.514980" lon="-117.608470">
        <ele>944.525</ele>
        <time>2018-12-28T08:11:19Z</time>
      </trkpt>
      <trkpt lat="35.515480" lon="-117.607980">
        <ele>946.808</ele>
        <time>2018-12-28T08:11:39Z</time>
      </trkpt>
      <trkpt lat="35.516290" lon="-117.607200">
        <ele>947.032</ele>
        <time>2018-12-28T08:11:59Z</time>
      </trkpt>
      <trkpt lat="35.517390" lon="-117.606120">
        <ele>943.330</ele>
        <time>2018-12-28T08:12:19Z</time>
      </trkpt>
      <trkpt lat="35.517980" lon="-117.605550">
        <ele>947.785</ele>
        <time>2018-12-28T08:12:39Z</time>
      </trkpt>
      <trkpt lat="35.519120" lon="-117.604430">
        <ele>948.375</ele>
        <time>2018-12-28T08:12:59Z</time>
      </trkpt>
      <trkpt lat="35.520200" lon="-117.603370">
        <ele>948.449</ele>
        <time>2018-12-28T08:13:19Z</time>
      </trkpt>
      <trkpt lat="35.520630" lon="-117.602960">
        <ele>948.463</ele>
        <time>2018-12-28T08:13:39Z</time>
      </trkpt>
      <trkpt lat="35.521200" lon="-117.602400">
        <ele>947.962</ele>
        <time>2018-12-28T08:13:59Z</time>
      </trkpt>
      <trkpt lat="35.522200" lon="-117.601420">
        <ele>946.877</ele>
        <time>2018-12-28T08:14:19Z</time>
      </trkpt>
      <trkpt lat="35.523250" lon="-117.600400">
        <ele>944.883</ele>
        <time>2018-12-28T08:14:39Z</time>
      </trkpt>
      <trkpt lat="35.523610" lon="-117.600050">
        <ele>946.125</ele>
        <time>2018-12-28T08:14:59Z</time>
      </trkpt>
      <trkpt lat="35.523920" lon="-117.599740">
        <ele>946.317</ele>
        <time>2018-12-28T08:15:19Z</time>
      </trkpt>
      <trkpt lat="35.526180" lon="-117.597530">
        <ele>946.308</ele>
        <time>2018-12-28T08:15:39Z</time>
      </trkpt>
      <trkpt lat="35.527900" lon="-117.595860">
        <ele>946.351</ele>
        <time>2018-12-28T08:15:59Z</time>
      </trkpt>
      <trkpt lat="35.529130" lon="-117.594650">
        <ele>946.589</ele>
        <time>2018-12-28T08:16:19Z</time>
      </trkpt>
      <trkpt lat="35.529530" lon="-117.594260">
        <ele>946.044</ele>
        <time>2018-12-28T08:16:39Z</time>
      </trkpt>
      <trkpt lat="35.530350" lon="-117.593460">
        <ele>944.244</ele>
        <time>2018-12-28T08:16:59Z</time>
      </trkpt>
      <trkpt lat="35.531010" lon="-117.592820">
        <ele>941.738</ele>
        <time>2018-12-28T08:17:19Z</time>
      </trkpt>
      <trkpt lat="35.531400" lon="-117.592440">
        <ele>943.382</ele>
        <time>2018-12-28T08:17:39Z</time>
      </trkpt>
      <trkpt lat="35.532790" lon="-117.591080">
        <ele>935.891</ele>
        <time>2018-12-28T08:17:59Z</time>
      </trkpt>
      <trkpt lat="35.533310" lon="-117.590580">
        <ele>934.566</ele>
        <time>2018-12-28T08:18:19Z</time>
      </trkpt>
      <trkpt lat="35.533740" lon="-117.590150">
        <ele>932.673</ele>
        <time>2018-12-28T08:18:39Z</time>
      </trkpt>
      <trkpt lat="35.534150" lon="-117.589740">
        <ele>932.485</ele>
        <time>2018-12-28T08:18:59Z</time>
      </trkpt>
      <trkpt lat="35.534680" lon="-117.589230">
        <ele>932.413</ele>
        <time>2018-12-28T08:19:19Z</time>
      </trkpt>
      <trkpt lat="35.535160" lon="-117.588770">
        <ele>931.608</ele>
        <time>2018-12-28T08:19:39Z</time>
      </trkpt>
      <trkpt lat="35.535840" lon="-117.588100">
        <ele>928.850</ele>
        <time>2018-12-28T08:19:59Z</time>
      </trkpt>
      <trkpt lat="35.537120" lon="-117.586860">
        <ele>935.298</ele>
        <time>2018-12-28T08:20:19Z</time>
      </trkpt>
      <trkpt lat="35.537680" lon="-117.586310">
        <ele>936.573</ele>
        <time>2018-12-28T08:20:39Z</time>
      </trkpt>
      <trkpt lat="35.538640" lon="-117.585360">
        <ele>935.353</ele>
        <time>2018-12-28T08:20:59Z</time>
      </trkpt>
      <trkpt lat="35.539590" lon="-117.584440">
        <ele>941.657</ele>
        <time>2018-12-28T08:21:19Z</time>
      </trkpt>
      <trkpt lat="35.539750" lon="-117.584270">
        <ele>942.811</ele>
        <time>2018-12-28T08:21:39Z</time>
      </trkpt>
      <trkpt lat="35.539980" lon="-117.584040">
        <ele>943.180</ele>
        <time>2018-12-28T08:21:59Z</time>
      </trkpt>
      <trkpt lat="35.540150" lon="-117.583870">
        <ele>943.355</ele>
        <time>2018-12-28T08:22:19Z</time>
      </trkpt>
      <trkpt lat="35.540260" lon="-117.583750">
        <ele>943.711</ele>
        <time>2018-12-28T08:22:39Z</time>
      </trkpt>
      <trkpt lat="35.540460" lon="-117.583490">
        <ele>943.921</ele>
        <time>2018-12-28T08:22:59Z</time>
      </trkpt>
      <trkpt lat="35.540560" lon="-117.583350">
        <ele>943.603</ele>
        <time>2018-12-28T08:23:19Z</time>
      </trkpt>
      <trkpt lat="35.540650" lon="-117.583210">
        <ele>943.308</ele>
        <time>2018-12-28T08:23:39Z</time>
      </trkpt>
      <trkpt lat="35.540780" lon="-117.582990">
        <ele>942.824</ele>
        <time>2018-12-28T08:23:59Z</time>
      </trkpt>
      <trkpt lat="35.540890" lon="-117.582780">
        <ele>942.352</ele>
        <time>2018-12-28T08:24:19Z</time>
      </trkpt>
      <trkpt lat="35.541000" lon="-117.582520">
        <ele>941.567</ele>
        <time>2018-12-28T08:24:39Z</time>
      </trkpt>
      <trkpt lat="35.541060" lon="-117.582370">
        <ele>940.977</ele>
        <time>2018-12-28T08:24:59Z</time>
      </trkpt>
      <trkpt lat="35.541110" lon="-117.582240">
        <ele>940.331</ele>
        <time>2018-12-28T08:25:19Z</time>
      </trkpt>
      <trkpt lat="35.541160" lon="-117.582070">
        <ele>939.335</ele>
        <time>2018-12-28T08:25:39Z</time>
      </trkpt>
      <trkpt lat="35.541200" lon="-117.581920">
        <ele>938.864</ele>
        <time>2018-12-28T08:25:59Z</time>
      </trkpt>
      <trkpt lat="35.541220" lon="-117.581790">
        <ele>938.449</ele>
        <time>2018-12-28T08:26:19Z</time>
      </trkpt>
      <trkpt lat="35.541230" lon="-117.581670">
        <ele>938.074</ele>
        <time>2018-12-28T08:26:39Z</time>
      </trkpt>
      <trkpt lat="35.541230" lon="-117.581550">
        <ele>937.656</ele>
        <time>2018-12-28T08:26:59Z</time>
      </trkpt>
      <trkpt lat="35.541230" lon="-117.581360">
        <ele>937.021</ele>
        <time>2018-12-28T08:27:19Z</time>
      </trkpt>
      <trkpt lat="35.541200" lon="-117.580950">
        <ele>935.408</ele>
        <time>2018-12-28T08:27:39Z</time>
      </trkpt>
      <trkpt lat="35.541201" lon="-117.580949">
        <ele>935.440</ele>
        <time>2018-12-28T08:27:59Z</time>
      </trkpt>
      <trkpt lat="35.541580" lon="-117.580890">
        <ele>937.318</ele>
        <time>2018-12-28T08:28:19Z</time>
      </trkpt>
      <trkpt lat="35.542330" lon="-117.580780">
        <ele>941.843</ele>
        <time>2018-12-28T08:28:39Z</time>
      </trkpt>
      <trkpt lat="35.542990" lon="-117.580680">
        <ele>945.243</ele>
        <time>2018-12-28T08:28:59Z</time>
      </trkpt>
      <trkpt lat="35.543140" lon="-117.580650">
        <ele>946.197</ele>
        <time>2018-12-28T08:29:19Z</time>
      </trkpt>
      <trkpt lat="35.543360" lon="-117.580610">
        <ele>947.881</ele>
        <time>2018-12-28T08:29:39Z</time>
      </trkpt>
      <trkpt lat="35.543540" lon="-117.580560">
        <ele>949.060</ele>
        <time>2018-12-28T08:29:59Z</time>
      </trkpt>
      <trkpt lat="35.543760" lon="-117.580500">
        <ele>950.275</ele>
        <time>2018-12-28T08:30:19Z</time>
      </trkpt>
      <trkpt lat="35.543950" lon="-117.580440">
        <ele>950.972</ele>
        <time>2018-12-28T08:30:39Z</time>
      </trkpt>
      <trkpt lat="35.544140" lon="-117.580380">
        <ele>951.813</ele>
        <time>2018-12-28T08:30:59Z</time>
      </trkpt>
      <trkpt lat="35.544290" lon="-117.580320">
        <ele>952.714</ele>
        <time>2018-12-28T08:31:19Z</time>
      </trkpt>
      <trkpt lat="35.544500" lon="-117.580240">
        <ele>954.608</ele>
        <time>2018-12-28T08:31:39Z</time>
      </trkpt>
      <trkpt lat="35.544620" lon="-117.580190">
        <ele>955.420</ele>
        <time>2018-12-28T08:31:59Z</time>
      </trkpt>
      <trkpt lat="35.544810" lon="-117.580100">
        <ele>956.278</ele>
        <time>2018-12-28T08:32:19Z</time>
      </trkpt>
      <trkpt lat="35.544920" lon="-117.580040">
        <ele>956.743</ele>
        <time>2018-12-28T08:32:39Z</time>
      </trkpt>
      <trkpt lat="35.545070" lon="-117.579960">
        <ele>957.243</ele>
        <time>2018-12-28T08:32:59Z</time>
      </trkpt>
      <trkpt lat="35.545190" lon="-117.579900">
        <ele>957.827</ele>
        <time>2018-12-28T08:33:19Z</time>
      </trkpt>
      <trkpt lat="35.545260" lon="-117.579850">
        <ele>958.211</ele>
        <time>2018-12-28T08:33:39Z</time>
      </trkpt>
      <trkpt lat="35.545370" lon="-117.579790">
        <ele>958.920</ele>
        <time>2018-12-28T08:33:59Z</time>
      </trkpt>
      <trkpt lat="35.545530" lon="-117.579680">
        <ele>960.065</ele>
        <time>2018-12-28T08:34:19Z</time>
      </trkpt>
      <trkpt lat="35.545730" lon="-117.579540">
        <ele>961.328</ele>
        <time>2018-12-28T08:34:39Z</time>
      </trkpt>
      <trkpt lat="35.545900" lon="-117.579410">
        <ele>962.389</ele>
        <time>2018-12-28T08:34:59Z</time>
      </trkpt>
      <trkpt lat="35.546320" lon="-117.579100">
        <ele>964.717</ele>
        <time>2018-12-28T08:35:19Z</time>
      </trkpt>
      <trkpt lat="35.546670" lon="-117.578820">
        <ele>967.908</ele>
        <time>2018-12-28T08:35:39Z</time>
      </trkpt>
      <trkpt lat="35.546940" lon="-117.578610">
        <ele>969.935</ele>
        <time>2018-12-28T08:35:59Z</time>
      </trkpt>
      <trkpt lat="35.547460" lon="-117.578210">
        <ele>974.463</ele>
        <time>2018-12-28T08:36:19Z</time>
      </trkpt>
      <trkpt lat="35.548010" lon="-117.577790">
        <ele>977.798</ele>
        <time>2018-12-28T08:36:39Z</time>
      </trkpt>
      <trkpt lat="35.548150" lon="-117.577680">
        <ele>979.078</ele>
        <time>2018-12-28T08:36:59Z</time>
      </trkpt>
      <trkpt lat="35.548590" lon="-117.577320">
        <ele>981.772</ele>
        <time>2018-12-28T08:37:19Z</time>
      </trkpt>
      <trkpt lat="35.548870" lon="-117.577080">
        <ele>981.376</ele>
        <time>2018-12-28T08:37:39Z</time>
      </trkpt>
      <trkpt lat="35.549240" lon="-117.576760">
        <ele>978.975</ele>
        <time>2018-12-28T08:37:59Z</time>
      </trkpt>
      <trkpt lat="35.549790" lon="-117.576290">
        <ele>975.250</ele>
        <time>2018-12-28T08:38:19Z</time>
      </trkpt>
      <trkpt lat="35.549900" lon="-117.576180">
        <ele>974.832</ele>
        <time>2018-12-28T08:38:39Z</time>
      </trkpt>
      <trkpt lat="35.550540" lon="-117.575620">
        <ele>972.792</ele>
        <time>2018-12-28T08:38:59Z</time>
      </trkpt>
      <trkpt lat="35.551600" lon="-117.574670">
        <ele>971.111</ele>
        <time>2018-12-28T08:39:19Z</time>
      </trkpt>
      <trkpt lat="35.552310" lon="-117.574040">
        <ele>971.308</ele>
        <time>2018-12-28T08:39:39Z</time>
      </trkpt>
      <trkpt lat="35.552930" lon="-117.573500">
        <ele>970.456</ele>
        <time>2018-12-28T08:39:59Z</time>
      </trkpt>
      <trkpt lat="35.553880" lon="-117.572660">
        <ele>976.144</ele>
        <time>2018-12-28T08:40:19Z</time>
      </trkpt>
      <trkpt lat="35.555410" lon="-117.571300">
        <ele>970.619</ele>
        <time>2018-12-28T08:40:39Z</time>
      </trkpt>
      <trkpt lat="35.556580" lon="-117.570250">
        <ele>968.819</ele>
        <time>2018-12-28T08:40:59Z</time>
      </trkpt>
      <trkpt lat="35.557970" lon="-117.569020">
        <ele>967.333</ele>
        <time>2018-12-28T08:41:19Z</time>
      </trkpt>
      <trkpt lat="35.559890" lon="-117.567320">
        <ele>972.287</ele>
        <time>2018-12-28T08:41:39Z</time>
      </trkpt>
      <trkpt lat="35.560370" lon="-117.566880">
        <ele>974.236</ele>
        <time>2018-12-28T08:41:59Z</time>
      </trkpt>
      <trkpt lat="35.561540" lon="-117.565840">
        <ele>975.671</ele>
        <time>2018-12-28T08:42:19Z</time>
      </trkpt>
      <trkpt lat="35.562390" lon="-117.565090">
        <ele>976.781</ele>
        <time>2018-12-28T08:42:39Z</time>
      </trkpt>
      <trkpt lat="35.563900" lon="-117.563740">
        <ele>984.761</ele>
        <time>2018-12-28T08:42:59Z</time>
      </trkpt>
      <trkpt lat="35.565300" lon="-117.562500">
        <ele>986.717</ele>
        <time>2018-12-28T08:43:19Z</time>
      </trkpt>
      <trkpt lat="35.565620" lon="-117.562220">
        <ele>986.408</ele>
        <time>2018-12-28T08:43:39Z</time>
      </trkpt>
      <trkpt lat="35.566520" lon="-117.561420">
        <ele>985.591</ele>
        <time>2018-12-28T08:43:59Z</time>
      </trkpt>
      <trkpt lat="35.566890" lon="-117.561080">
        <ele>985.459</ele>
        <time>2018-12-28T08:44:19Z</time>
      </trkpt>
      <trkpt lat="35.567200" lon="-117.560790">
        <ele>985.844</ele>
        <time>2018-12-28T08:44:39Z</time>
      </trkpt>
      <trkpt lat="35.567400" lon="-117.560570">
        <ele>986.114</ele>
        <time>2018-12-28T08:44:59Z</time>
      </trkpt>
      <trkpt lat="35.567550" lon="-117.560410">
        <ele>986.238</ele>
        <time>2018-12-28T08:45:19Z</time>
      </trkpt>
      <trkpt lat="35.567730" lon="-117.560190">
        <ele>986.262</ele>
        <time>2018-12-28T08:45:39Z</time>
      </trkpt>
      <trkpt lat="35.567870" lon="-117.560020">
        <ele>986.231</ele>
        <time>2018-12-28T08:45:59Z</time>
      </trkpt>
      <trkpt lat="35.568000" lon="-117.559840">
        <ele>986.496</ele>
        <time>2018-12-28T08:46:19Z</time>
      </trkpt>
      <trkpt lat="35.568130" lon="-117.559660">
        <ele>986.616</ele>
        <time>2018-12-28T08:46:39Z</time>
      </trkpt>
      <trkpt lat="35.568300" lon="-117.559410">
        <ele>987.076</ele>
        <time>2018-12-28T08:46:59Z</time>
      </trkpt>
      <trkpt lat="35.568740" lon="-117.558780">
        <ele>987.613</ele>
        <time>2018-12-28T08:47:19Z</time>
      </trkpt>
      <trkpt lat="35.569150" lon="-117.558180">
        <ele>989.408</ele>
        <time>2018-12-28T08:47:39Z</time>
      </trkpt>
      <trkpt lat="35.569880" lon="-117.557130">
        <ele>989.944</ele>
        <time>2018-12-28T08:47:59Z</time>
      </trkpt>
      <trkpt lat="35.570410" lon="-117.556370">
        <ele>994.612</ele>
        <time>2018-12-28T08:48:19Z</time>
      </trkpt>
      <trkpt lat="35.571370" lon="-117.554970">
        <ele>999.717</ele>
        <time>2018-12-28T08:48:39Z</time>
      </trkpt>
      <trkpt lat="35.571690" lon="-117.554510">
        <ele>1001.587</ele>
        <time>2018-12-28T08:48:59Z</time>
      </trkpt>
      <trkpt lat="35.572620" lon="-117.553180">
        <ele>998.911</ele>
        <time>2018-12-28T08:49:19Z</time>
      </trkpt>
      <trkpt lat="35.573170" lon="-117.552380">
        <ele>997.785</ele>
        <time>2018-12-28T08:49:39Z</time>
      </trkpt>
      <trkpt lat="35.573630" lon="-117.551720">
        <ele>995.484</ele>
        <time>2018-12-28T08:49:59Z</time>
      </trkpt>
      <trkpt lat="35.573870" lon="-117.551410">
        <ele>994.629</ele>
        <time>2018-12-28T08:50:19Z</time>
      </trkpt>
      <trkpt lat="35.573970" lon="-117.551280">
        <ele>994.065</ele>
        <time>2018-12-28T08:50:39Z</time>
      </trkpt>
      <trkpt lat="35.574220" lon="-117.550980">
        <ele>992.068</ele>
        <time>2018-12-28T08:50:59Z</time>
      </trkpt>
      <trkpt lat="35.574620" lon="-117.550540">
        <ele>989.414</ele>
        <time>2018-12-28T08:51:19Z</time>
      </trkpt>
      <trkpt lat="35.574780" lon="-117.550360">
        <ele>988.108</ele>
        <time>2018-12-28T08:51:39Z</time>
      </trkpt>
      <trkpt lat="35.574990" lon="-117.550140">
        <ele>987.579</ele>
        <time>2018-12-28T08:51:59Z</time>
      </trkpt>
      <trkpt lat="35.575160" lon="-117.549960">
        <ele>987.157</ele>
        <time>2018-12-28T08:52:19Z</time>
      </trkpt>
      <trkpt lat="35.575350" lon="-117.549770">
        <ele>986.452</ele>
        <time>2018-12-28T08:52:39Z</time>
      </trkpt>
      <trkpt lat="35.575530" lon="-117.549600">
        <ele>986.242</ele>
        <time>2018-12-28T08:52:59Z</time>
      </trkpt>
      <trkpt lat="35.575590" lon="-117.549540">
        <ele>986.026</ele>
        <time>2018-12-28T08:53:19Z</time>
      </trkpt>
      <trkpt lat="35.575640" lon="-117.549500">
        <ele>985.860</ele>
        <time>2018-12-28T08:53:39Z</time>
      </trkpt>
      <trkpt lat="35.575780" lon="-117.549370">
        <ele>984.889</ele>
        <time>2018-12-28T08:53:59Z</time>
      </trkpt>
      <trkpt lat="35.575990" lon="-117.549190">
        <ele>983.644</ele>
        <time>2018-12-28T08:54:19Z</time>
      </trkpt>
      <trkpt lat="35.576520" lon="-117.548750">
        <ele>979.724</ele>
        <time>2018-12-28T08:54:39Z</time>
      </trkpt>
      <trkpt lat="35.577350" lon="-117.548120">
        <ele>974.104</ele>
        <time>2018-12-28T08:54:59Z</time>
      </trkpt>
      <trkpt lat="35.577900" lon="-117.547710">
        <ele>969.614</ele>
        <time>2018-12-28T08:55:19Z</time>
      </trkpt>
      <trkpt lat="35.578810" lon="-117.547050">
        <ele>964.308</ele>
        <time>2018-12-28T08:55:39Z</time>
      </trkpt>
      <trkpt lat="35.579800" lon="-117.546330">
        <ele>960.875</ele>
        <time>2018-12-28T08:55:59Z</time>
      </trkpt>
      <trkpt lat="35.580920" lon="-117.545520">
        <ele>955.413</ele>
        <time>2018-12-28T08:56:19Z</time>
      </trkpt>
      <trkpt lat="35.582040" lon="-117.544700">
        <ele>947.628</ele>
        <time>2018-12-28T08:56:39Z</time>
      </trkpt>
      <trkpt lat="35.582780" lon="-117.544170">
        <ele>942.798</ele>
        <time>2018-12-28T08:56:59Z</time>
      </trkpt>
      <trkpt lat="35.583570" lon="-117.543610">
        <ele>938.172</ele>
        <time>2018-12-28T08:57:19Z</time>
      </trkpt>
      <trkpt lat="35.584410" lon="-117.543000">
        <ele>933.016</ele>
        <time>2018-12-28T08:57:39Z</time>
      </trkpt>
      <trkpt lat="35.585680" lon="-117.542090">
        <ele>924.595</ele>
        <time>2018-12-28T08:57:59Z</time>
      </trkpt>
      <trkpt lat="35.586330" lon="-117.541610">
        <ele>920.790</ele>
        <time>2018-12-28T08:58:19Z</time>
      </trkpt>
      <trkpt lat="35.586930" lon="-117.541190">
        <ele>916.958</ele>
        <time>2018-12-28T08:58:39Z</time>
      </trkpt>
      <trkpt lat="35.587630" lon="-117.540700">
        <ele>912.052</ele>
        <time>2018-12-28T08:58:59Z</time>
      </trkpt>
      <trkpt lat="35.588200" lon="-117.540310">
        <ele>908.117</ele>
        <time>2018-12-28T08:59:19Z</time>
      </trkpt>
      <trkpt lat="35.589110" lon="-117.539710">
        <ele>902.308</ele>
        <time>2018-12-28T08:59:39Z</time>
      </trkpt>
      <trkpt lat="35.589590" lon="-117.539390">
        <ele>898.748</ele>
        <time>2018-12-28T08:59:59Z</time>
      </trkpt>
      <trkpt lat="35.591250" lon="-117.538310">
        <ele>887.456</ele>
        <time>2018-12-28T09:00:19Z</time>
      </trkpt>
      <trkpt lat="35.592990" lon="-117.537170">
        <ele>875.261</ele>
        <time>2018-12-28T09:00:39Z</time>
      </trkpt>
      <trkpt lat="35.594050" lon="-117.536480">
        <ele>867.431</ele>
        <time>2018-12-28T09:00:59Z</time>
      </trkpt>
      <trkpt lat="35.596790" lon="-117.534700">
        <ele>849.265</ele>
        <time>2018-12-28T09:01:19Z</time>
      </trkpt>
      <trkpt lat="35.598580" lon="-117.533540">
        <ele>837.729</ele>
        <time>2018-12-28T09:01:39Z</time>
      </trkpt>
      <trkpt lat="35.600130" lon="-117.532530">
        <ele>828.218</ele>
        <time>2018-12-28T09:01:59Z</time>
      </trkpt>
      <trkpt lat="35.602150" lon="-117.531230">
        <ele>814.333</ele>
        <time>2018-12-28T09:02:19Z</time>
      </trkpt>
      <trkpt lat="35.603010" lon="-117.530670">
        <ele>808.861</ele>
        <time>2018-12-28T09:02:39Z</time>
      </trkpt>
      <trkpt lat="35.603420" lon="-117.530390">
        <ele>806.321</ele>
        <time>2018-12-28T09:02:59Z</time>
      </trkpt>
      <trkpt lat="35.605040" lon="-117.529340">
        <ele>795.613</ele>
        <time>2018-12-28T09:03:19Z</time>
      </trkpt>
      <trkpt lat="35.606890" lon="-117.528130">
        <ele>783.708</ele>
        <time>2018-12-28T09:03:39Z</time>
      </trkpt>
      <trkpt lat="35.608160" lon="-117.527310">
        <ele>775.329</ele>
        <time>2018-12-28T09:03:59Z</time>
      </trkpt>
      <trkpt lat="35.608450" lon="-117.527120">
        <ele>773.527</ele>
        <time>2018-12-28T09:04:19Z</time>
      </trkpt>
      <trkpt lat="35.610350" lon="-117.525880">
        <ele>761.772</ele>
        <time>2018-12-28T09:04:39Z</time>
      </trkpt>
      <trkpt lat="35.613960" lon="-117.523540">
        <ele>743.322</ele>
        <time>2018-12-28T09:04:59Z</time>
      </trkpt>
      <trkpt lat="35.615050" lon="-117.522840">
        <ele>737.556</ele>
        <time>2018-12-28T09:05:19Z</time>
      </trkpt>
      <trkpt lat="35.616390" lon="-117.521970">
        <ele>731.040</ele>
        <time>2018-12-28T09:05:39Z</time>
      </trkpt>
      <trkpt lat="35.617720" lon="-117.521100">
        <ele>724.399</ele>
        <time>2018-12-28T09:05:59Z</time>
      </trkpt>
      <trkpt lat="35.620270" lon="-117.519440">
        <ele>712.424</ele>
        <time>2018-12-28T09:06:19Z</time>
      </trkpt>
      <trkpt lat="35.622800" lon="-117.517800">
        <ele>701.055</ele>
        <time>2018-12-28T09:06:39Z</time>
      </trkpt>
      <trkpt lat="35.623160" lon="-117.517570">
        <ele>699.607</ele>
        <time>2018-12-28T09:06:59Z</time>
      </trkpt>
      <trkpt lat="35.623440" lon="-117.517380">
        <ele>698.417</ele>
        <time>2018-12-28T09:07:19Z</time>
      </trkpt>
      <trkpt lat="35.624520" lon="-117.516690">
        <ele>693.908</ele>
        <time>2018-12-28T09:07:39Z</time>
      </trkpt>
      <trkpt lat="35.625630" lon="-117.515970">
        <ele>690.228</ele>
        <time>2018-12-28T09:07:59Z</time>
      </trkpt>
      <trkpt lat="35.626000" lon="-117.515740">
        <ele>688.726</ele>
        <time>2018-12-28T09:08:19Z</time>
      </trkpt>
      <trkpt lat="35.626200" lon="-117.515620">
        <ele>687.911</ele>
        <time>2018-12-28T09:08:39Z</time>
      </trkpt>
      <trkpt lat="35.626480" lon="-117.515460">
        <ele>686.721</ele>
        <time>2018-12-28T09:08:59Z</time>
      </trkpt>
      <trkpt lat="35.626670" lon="-117.515370">
        <ele>685.985</ele>
        <time>2018-12-28T09:09:19Z</time>
      </trkpt>
      <trkpt lat="35.626880" lon="-117.515280">
        <ele>685.259</ele>
        <time>2018-12-28T09:09:39Z</time>
      </trkpt>
      <trkpt lat="35.627050" lon="-117.515210">
        <ele>684.938</ele>
        <time>2018-12-28T09:09:59Z</time>
      </trkpt>
      <trkpt lat="35.627280" lon="-117.515120">
        <ele>684.233</ele>
        <time>2018-12-28T09:10:19Z</time>
      </trkpt>
      <trkpt lat="35.627450" lon="-117.515060">
        <ele>683.529</ele>
        <time>2018-12-28T09:10:39Z</time>
      </trkpt>
      <trkpt lat="35.627620" lon="-117.515010">
        <ele>682.900</ele>
        <time>2018-12-28T09:10:59Z</time>
      </trkpt>
      <trkpt lat="35.627790" lon="-117.514950">
        <ele>682.320</ele>
        <time>2018-12-28T09:11:19Z</time>
      </trkpt>
      <trkpt lat="35.627930" lon="-117.514910">
        <ele>681.808</ele>
        <time>2018-12-28T09:11:39Z</time>
      </trkpt>
      <trkpt lat="35.634010" lon="-117.513160">
        <ele>659.665</ele>
        <time>2018-12-28T09:11:59Z</time>
      </trkpt>
      <trkpt lat="35.635020" lon="-117.512870">
        <ele>655.363</ele>
        <time>2018-12-28T09:12:19Z</time>
      </trkpt>
      <trkpt lat="35.636230" lon="-117.512520">
        <ele>650.958</ele>
        <time>2018-12-28T09:12:39Z</time>
      </trkpt>
      <trkpt lat="35.637400" lon="-117.512180">
        <ele>646.548</ele>
        <time>2018-12-28T09:12:59Z</time>
      </trkpt>
      <trkpt lat="35.637700" lon="-117.512090">
        <ele>645.792</ele>
        <time>2018-12-28T09:13:19Z</time>
      </trkpt>
      <trkpt lat="35.638300" lon="-117.511920">
        <ele>643.816</ele>
        <time>2018-12-28T09:13:39Z</time>
      </trkpt>
      <trkpt lat="35.638880" lon="-117.511750">
        <ele>641.865</ele>
        <time>2018-12-28T09:13:59Z</time>
      </trkpt>
      <trkpt lat="35.640560" lon="-117.511270">
        <ele>635.750</ele>
        <time>2018-12-28T09:14:19Z</time>
      </trkpt>
      <trkpt lat="35.641540" lon="-117.510980">
        <ele>633.896</ele>
        <time>2018-12-28T09:14:39Z</time>
      </trkpt>
      <trkpt lat="35.641810" lon="-117.510910">
        <ele>632.531</ele>
        <time>2018-12-28T09:14:59Z</time>
      </trkpt>
      <trkpt lat="35.642400" lon="-117.510730">
        <ele>629.824</ele>
        <time>2018-12-28T09:15:19Z</time>
      </trkpt>
      <trkpt lat="35.642580" lon="-117.510690">
        <ele>629.308</ele>
        <time>2018-12-28T09:15:39Z</time>
      </trkpt>
      <trkpt lat="35.642710" lon="-117.510640">
        <ele>629.122</ele>
        <time>2018-12-28T09:15:59Z</time>
      </trkpt>
      <trkpt lat="35.642880" lon="-117.510600">
        <ele>629.110</ele>
        <time>2018-12-28T09:16:19Z</time>
      </trkpt>
      <trkpt lat="35.643030" lon="-117.510550">
        <ele>629.075</ele>
        <time>2018-12-28T09:16:39Z</time>
      </trkpt>
      <trkpt lat="35.643340" lon="-117.510470">
        <ele>628.715</ele>
        <time>2018-12-28T09:16:59Z</time>
      </trkpt>
      <trkpt lat="35.643660" lon="-117.510390">
        <ele>627.649</ele>
        <time>2018-12-28T09:17:19Z</time>
      </trkpt>
      <trkpt lat="35.643810" lon="-117.510370">
        <ele>626.893</ele>
        <time>2018-12-28T09:17:39Z</time>
      </trkpt>
      <trkpt lat="35.643990" lon="-117.510340">
        <ele>625.542</ele>
        <time>2018-12-28T09:17:59Z</time>
      </trkpt>
      <trkpt lat="35.644130" lon="-117.510320">
        <ele>624.747</ele>
        <time>2018-12-28T09:18:19Z</time>
      </trkpt>
      <trkpt lat="35.644530" lon="-117.510290">
        <ele>623.561</ele>
        <time>2018-12-28T09:18:39Z</time>
      </trkpt>
      <trkpt lat="35.644790" lon="-117.510280">
        <ele>623.621</ele>
        <time>2018-12-28T09:18:59Z</time>
      </trkpt>
      <trkpt lat="35.645060" lon="-117.510270">
        <ele>623.313</ele>
        <time>2018-12-28T09:19:19Z</time>
      </trkpt>
      <trkpt lat="35.645270" lon="-117.510280">
        <ele>622.908</ele>
        <time>2018-12-28T09:19:39Z</time>
      </trkpt>
      <trkpt lat="35.645600" lon="-117.510310">
        <ele>622.039</ele>
        <time>2018-12-28T09:19:59Z</time>
      </trkpt>
      <trkpt lat="35.645900" lon="-117.510340">
        <ele>620.997</ele>
        <time>2018-12-28T09:20:19Z</time>
      </trkpt>
      <trkpt lat="35.646220" lon="-117.510390">
        <ele>619.252</ele>
        <time>2018-12-28T09:20:39Z</time>
      </trkpt>
      <trkpt lat="35.646550" lon="-117.510450">
        <ele>618.182</ele>
        <time>2018-12-28T09:20:59Z</time>
      </trkpt>
      <trkpt lat="35.646670" lon="-117.510470">
        <ele>617.916</ele>
        <time>2018-12-28T09:21:19Z</time>
      </trkpt>
      <trkpt lat="35.646890" lon="-117.510510">
        <ele>617.540</ele>
        <time>2018-12-28T09:21:39Z</time>
      </trkpt>
      <trkpt lat="35.646970" lon="-117.510530">
        <ele>617.349</ele>
        <time>2018-12-28T09:21:59Z</time>
      </trkpt>
      <trkpt lat="35.646968" lon="-117.510528">
        <ele>617.394</ele>
        <time>2018-12-28T09:22:19Z</time>
      </trkpt>
      <trkpt lat="35.647030" lon="-117.510010">
        <ele>616.778</ele>
        <time>2018-12-28T09:22:39Z</time>
      </trkpt>
      <trkpt lat="35.647160" lon="-117.508770">
        <ele>615.933</ele>
        <time>2018-12-28T09:22:59Z</time>
      </trkpt>
      <trkpt lat="35.647180" lon="-117.508540">
        <ele>615.826</ele>
        <time>2018-12-28T09:23:19Z</time>
      </trkpt>
      <trkpt lat="35.647190" lon="-117.508450">
        <ele>615.808</ele>
        <time>2018-12-28T09:23:39Z</time>
      </trkpt>
      <trkpt lat="35.647220" lon="-117.508370">
        <ele>615.690</ele>
        <time>2018-12-28T09:23:59Z</time>
      </trkpt>
      <trkpt lat="35.647270" lon="-117.507890">
        <ele>614.178</ele>
        <time>2018-12-28T09:24:19Z</time>
      </trkpt>
      <trkpt lat="35.647310" lon="-117.507580">
        <ele>612.333</ele>
        <time>2018-12-28T09:24:39Z</time>
      </trkpt>
      <trkpt lat="35.647340" lon="-117.507340">
        <ele>611.763</ele>
        <time>2018-12-28T09:24:59Z</time>
      </trkpt>
      <trkpt lat="35.647360" lon="-117.507080">
        <ele>611.537</ele>
        <time>2018-12-28T09:25:19Z</time>
      </trkpt>
      <trkpt lat="35.647380" lon="-117.506780">
        <ele>611.531</ele>
        <time>2018-12-28T09:25:39Z</time>
      </trkpt>
      <trkpt lat="35.647740" lon="-117.501700">
        <ele>605.020</ele>
        <time>2018-12-28T09:25:59Z</time>
      </trkpt>
      <trkpt lat="35.647850" lon="-117.500280">
        <ele>604.595</ele>
        <time>2018-12-28T09:26:19Z</time>
      </trkpt>
      <trkpt lat="35.647910" lon="-117.499330">
        <ele>603.449</ele>
        <time>2018-12-28T09:26:39Z</time>
      </trkpt>
      <trkpt lat="35.647970" lon="-117.498540">
        <ele>601.402</ele>
        <time>2018-12-28T09:26:59Z</time>
      </trkpt>
      <trkpt lat="35.648040" lon="-117.497520">
        <ele>599.622</ele>
        <time>2018-12-28T09:27:19Z</time>
      </trkpt>
      <trkpt lat="35.648100" lon="-117.496620">
        <ele>598.208</ele>
        <time>2018-12-28T09:27:39Z</time>
      </trkpt>
      <trkpt lat="35.648370" lon="-117.492560">
        <ele>594.337</ele>
        <time>2018-12-28T09:27:59Z</time>
      </trkpt>
      <trkpt lat="35.648480" lon="-117.490920">
        <ele>593.125</ele>
        <time>2018-12-28T09:28:19Z</time>
      </trkpt>
      <trkpt lat="35.648690" lon="-117.487880">
        <ele>591.960</ele>
        <time>2018-12-28T09:28:39Z</time>
      </trkpt>
      <trkpt lat="35.648750" lon="-117.486930">
        <ele>592.140</ele>
        <time>2018-12-28T09:28:59Z</time>
      </trkpt>
      <trkpt lat="35.648820" lon="-117.486100">
        <ele>589.384</ele>
        <time>2018-12-28T09:29:19Z</time>
      </trkpt>
      <trkpt lat="35.648860" lon="-117.485520">
        <ele>588.748</ele>
        <time>2018-12-28T09:29:39Z</time>
      </trkpt>
      <trkpt lat="35.649020" lon="-117.483120">
        <ele>587.487</ele>
        <time>2018-12-28T09:29:59Z</time>
      </trkpt>
      <trkpt lat="35.649100" lon="-117.481770">
        <ele>588.152</ele>
        <time>2018-12-28T09:30:19Z</time>
      </trkpt>
      <trkpt lat="35.649150" lon="-117.480720">
        <ele>588.225</ele>
        <time>2018-12-28T09:30:39Z</time>
      </trkpt>
      <trkpt lat="35.649190" lon="-117.479530">
        <ele>587.226</ele>
        <time>2018-12-28T09:30:59Z</time>
      </trkpt>
      <trkpt lat="35.649230" lon="-117.478390">
        <ele>586.308</ele>
        <time>2018-12-28T09:31:19Z</time>
      </trkpt>
      <trkpt lat="35.649270" lon="-117.477460">
        <ele>585.908</ele>
        <time>2018-12-28T09:31:39Z</time>
      </trkpt>
      <trkpt lat="35.649290" lon="-117.476840">
        <ele>585.715</ele>
        <time>2018-12-28T09:31:59Z</time>
      </trkpt>
      <trkpt lat="35.649320" lon="-117.475920">
        <ele>586.043</ele>
        <time>2018-12-28T09:32:19Z</time>
      </trkpt>
      <trkpt lat="35.649340" lon="-117.475440">
        <ele>586.468</ele>
        <time>2018-12-28T09:32:39Z</time>
      </trkpt>
      <trkpt lat="35.649350" lon="-117.475190">
        <ele>586.538</ele>
        <time>2018-12-28T09:32:59Z</time>
      </trkpt>
      <trkpt lat="35.649370" lon="-117.474770">
        <ele>586.542</ele>
        <time>2018-12-28T09:33:19Z</time>
      </trkpt>
      <trkpt lat="35.649380" lon="-117.474640">
        <ele>586.626</ele>
        <time>2018-12-28T09:33:39Z</time>
      </trkpt>
      <trkpt lat="35.649390" lon="-117.474550">
        <ele>586.675</ele>
        <time>2018-12-28T09:33:59Z</time>
      </trkpt>
      <trkpt lat="35.649400" lon="-117.474450">
        <ele>586.630</ele>
        <time>2018-12-28T09:34:19Z</time>
      </trkpt>
      <trkpt lat="35.649410" lon="-117.474360">
        <ele>586.661</ele>
        <time>2018-12-28T09:34:39Z</time>
      </trkpt>
      <trkpt lat="35.649430" lon="-117.474270">
        <ele>586.621</ele>
        <time>2018-12-28T09:34:59Z</time>
      </trkpt>
      <trkpt lat="35.649510" lon="-117.473860">
        <ele>586.613</ele>
        <time>2018-12-28T09:35:19Z</time>
      </trkpt>
      <trkpt lat="35.649560" lon="-117.473660">
        <ele>586.608</ele>
        <time>2018-12-28T09:35:39Z</time>
      </trkpt>
      <trkpt lat="35.649980" lon="-117.472290">
        <ele>586.659</ele>
        <time>2018-12-28T09:35:59Z</time>
      </trkpt>
      <trkpt lat="35.650370" lon="-117.471080">
        <ele>586.937</ele>
        <time>2018-12-28T09:36:19Z</time>
      </trkpt>
      <trkpt lat="35.651030" lon="-117.468970">
        <ele>586.432</ele>
        <time>2018-12-28T09:36:39Z</time>
      </trkpt>
      <trkpt lat="35.651200" lon="-117.468440">
        <ele>585.992</ele>
        <time>2018-12-28T09:36:59Z</time>
      </trkpt>
      <trkpt lat="35.651310" lon="-117.468110">
        <ele>585.796</ele>
        <time>2018-12-28T09:37:19Z</time>
      </trkpt>
      <trkpt lat="35.651350" lon="-117.468000">
        <ele>585.810</ele>
        <time>2018-12-28T09:37:39Z</time>
      </trkpt>
      <trkpt lat="35.651400" lon="-117.467860">
        <ele>585.919</ele>
        <time>2018-12-28T09:37:59Z</time>
      </trkpt>
      <trkpt lat="35.651450" lon="-117.467710">
        <ele>585.934</ele>
        <time>2018-12-28T09:38:19Z</time>
      </trkpt>
      <trkpt lat="35.651520" lon="-117.467550">
        <ele>585.815</ele>
        <time>2018-12-28T09:38:39Z</time>
      </trkpt>
      <trkpt lat="35.651590" lon="-117.467390">
        <ele>585.865</ele>
        <time>2018-12-28T09:38:59Z</time>
      </trkpt>
      <trkpt lat="35.651660" lon="-117.467240">
        <ele>585.711</ele>
        <time>2018-12-28T09:39:19Z</time>
      </trkpt>
      <trkpt lat="35.651730" lon="-117.467100">
        <ele>585.608</ele>
        <time>2018-12-28T09:39:39Z</time>
      </trkpt>
      <trkpt lat="35.651800" lon="-117.466960">
        <ele>585.674</ele>
        <time>2018-12-28T09:39:59Z</time>
      </trkpt>
      <trkpt lat="35.651920" lon="-117.466770">
        <ele>585.442</ele>
        <time>2018-12-28T09:40:19Z</time>
      </trkpt>
      <trkpt lat="35.652000" lon="-117.466630">
        <ele>585.367</ele>
        <time>2018-12-28T09:40:39Z</time>
      </trkpt>
      <trkpt lat="35.652100" lon="-117.466480">
        <ele>585.217</ele>
        <time>2018-12-28T09:40:59Z</time>
      </trkpt>
      <trkpt lat="35.652260" lon="-117.466210">
        <ele>585.021</ele>
        <time>2018-12-28T09:41:19Z</time>
      </trkpt>
      <trkpt lat="35.652670" lon="-117.465560">
        <ele>584.715</ele>
        <time>2018-12-28T09:41:39Z</time>
      </trkpt>
      <trkpt lat="35.653740" lon="-117.463920">
        <ele>586.924</ele>
        <time>2018-12-28T09:41:59Z</time>
      </trkpt>
      <trkpt lat="35.653960" lon="-117.463580">
        <ele>586.999</ele>
        <time>2018-12-28T09:42:19Z</time>
      </trkpt>
      <trkpt lat="35.654140" lon="-117.463290">
        <ele>587.124</ele>
        <time>2018-12-28T09:42:39Z</time>
      </trkpt>
      <trkpt lat="35.654210" lon="-117.463170">
        <ele>587.204</ele>
        <time>2018-12-28T09:42:59Z</time>
      </trkpt>
      <trkpt lat="35.654270" lon="-117.463070">
        <ele>587.314</ele>
        <time>2018-12-28T09:43:19Z</time>
      </trkpt>
      <trkpt lat="35.654340" lon="-117.462920">
        <ele>587.508</ele>
        <time>2018-12-28T09:43:39Z</time>
      </trkpt>
      <trkpt lat="35.654400" lon="-117.462780">
        <ele>587.635</ele>
        <time>2018-12-28T09:43:59Z</time>
      </trkpt>
      <trkpt lat="35.654500" lon="-117.462540">
        <ele>587.753</ele>
        <time>2018-12-28T09:44:19Z</time>
      </trkpt>
      <trkpt lat="35.654530" lon="-117.462470">
        <ele>587.718</ele>
        <time>2018-12-28T09:44:39Z</time>
      </trkpt>
      <trkpt lat="35.654570" lon="-117.462340">
        <ele>587.868</ele>
        <time>2018-12-28T09:44:59Z</time>
      </trkpt>
      <trkpt lat="35.654610" lon="-117.462200">
        <ele>588.042</ele>
        <time>2018-12-28T09:45:19Z</time>
      </trkpt>
      <trkpt lat="35.654650" lon="-117.462040">
        <ele>588.266</ele>
        <time>2018-12-28T09:45:39Z</time>
      </trkpt>
      <trkpt lat="35.654670" lon="-117.461910">
        <ele>588.425</ele>
        <time>2018-12-28T09:45:59Z</time>
      </trkpt>
      <trkpt lat="35.654700" lon="-117.461750">
        <ele>588.770</ele>
        <time>2018-12-28T09:46:19Z</time>
      </trkpt>
      <trkpt lat="35.654720" lon="-117.461590">
        <ele>589.122</ele>
        <time>2018-12-28T09:46:39Z</time>
      </trkpt>
      <trkpt lat="35.654730" lon="-117.461500">
        <ele>589.262</ele>
        <time>2018-12-28T09:46:59Z</time>
      </trkpt>
      <trkpt lat="35.654740" lon="-117.461390">
        <ele>589.308</ele>
        <time>2018-12-28T09:47:19Z</time>
      </trkpt>
      <trkpt lat="35.654750" lon="-117.461300">
        <ele>589.408</ele>
        <time>2018-12-28T09:47:39Z</time>
      </trkpt>
      <trkpt lat="35.654750" lon="-117.461160">
        <ele>589.785</ele>
        <time>2018-12-28T09:47:59Z</time>
      </trkpt>
      <trkpt lat="35.654760" lon="-117.461040">
        <ele>589.973</ele>
        <time>2018-12-28T09:48:19Z</time>
      </trkpt>
      <trkpt lat="35.654760" lon="-117.460930">
        <ele>590.428</ele>
        <time>2018-12-28T09:48:39Z</time>
      </trkpt>
      <trkpt lat="35.654720" lon="-117.460250">
        <ele>589.828</ele>
        <time>2018-12-28T09:48:59Z</time>
      </trkpt>
      <trkpt lat="35.654710" lon="-117.460110">
        <ele>588.652</ele>
        <time>2018-12-28T09:49:19Z</time>
      </trkpt>
      <trkpt lat="35.654700" lon="-117.460000">
        <ele>588.786</ele>
        <time>2018-12-28T09:49:39Z</time>
      </trkpt>
      <trkpt lat="35.654690" lon="-117.459860">
        <ele>588.665</ele>
        <time>2018-12-28T09:49:59Z</time>
      </trkpt>
      <trkpt lat="35.654680" lon="-117.459710">
        <ele>587.540</ele>
        <time>2018-12-28T09:50:19Z</time>
      </trkpt>
      <trkpt lat="35.654660" lon="-117.459530">
        <ele>586.054</ele>
        <time>2018-12-28T09:50:39Z</time>
      </trkpt>
      <trkpt lat="35.654650" lon="-117.459400">
        <ele>584.956</ele>
        <time>2018-12-28T09:50:59Z</time>
      </trkpt>
      <trkpt lat="35.654640" lon="-117.459280">
        <ele>583.811</ele>
        <time>2018-12-28T09:51:19Z</time>
      </trkpt>
      <trkpt lat="35.654600" lon="-117.458510">
        <ele>576.408</ele>
        <time>2018-12-28T09:51:39Z</time>
      </trkpt>
      <trkpt lat="35.654600" lon="-117.458470">
        <ele>576.188</ele>
        <time>2018-12-28T09:51:59Z</time>
      </trkpt>
      <trkpt lat="35.654580" lon="-117.458350">
        <ele>576.146</ele>
        <time>2018-12-28T09:52:19Z</time>
      </trkpt>
      <trkpt lat="35.654570" lon="-117.458140">
        <ele>575.961</ele>
        <time>2018-12-28T09:52:39Z</time>
      </trkpt>
      <trkpt lat="35.654560" lon="-117.458000">
        <ele>575.991</ele>
        <time>2018-12-28T09:52:59Z</time>
      </trkpt>
      <trkpt lat="35.654560" lon="-117.457830">
        <ele>575.945</ele>
        <time>2018-12-28T09:53:19Z</time>
      </trkpt>
      <trkpt lat="35.654560" lon="-117.457740">
        <ele>576.019</ele>
        <time>2018-12-28T09:53:39Z</time>
      </trkpt>
      <trkpt lat="35.654570" lon="-117.457630">
        <ele>575.988</ele>
        <time>2018-12-28T09:53:59Z</time>
      </trkpt>
      <trkpt lat="35.654580" lon="-117.457480">
        <ele>575.993</ele>
        <time>2018-12-28T09:54:19Z</time>
      </trkpt>
      <trkpt lat="35.654600" lon="-117.457330">
        <ele>575.981</ele>
        <time>2018-12-28T09:54:39Z</time>
      </trkpt>
      <trkpt lat="35.654610" lon="-117.457220">
        <ele>576.061</ele>
        <time>2018-12-28T09:54:59Z</time>
      </trkpt>
      <trkpt lat="35.654640" lon="-117.457040">
        <ele>576.017</ele>
        <time>2018-12-28T09:55:19Z</time>
      </trkpt>
      <trkpt lat="35.654680" lon="-117.456890">
        <ele>575.908</ele>
        <time>2018-12-28T09:55:39Z</time>
      </trkpt>
      <trkpt lat="35.654710" lon="-117.456780">
        <ele>575.761</ele>
        <time>2018-12-28T09:55:59Z</time>
      </trkpt>
      <trkpt lat="35.654730" lon="-117.456700">
        <ele>575.759</ele>
        <time>2018-12-28T09:56:19Z</time>
      </trkpt>
      <trkpt lat="35.654780" lon="-117.456530">
        <ele>575.564</ele>
        <time>2018-12-28T09:56:39Z</time>
      </trkpt>
      <trkpt lat="35.654810" lon="-117.456450">
        <ele>575.444</ele>
        <time>2018-12-28T09:56:59Z</time>
      </trkpt>
      <trkpt lat="35.654860" lon="-117.456310">
        <ele>575.338</ele>
        <time>2018-12-28T09:57:19Z</time>
      </trkpt>
      <trkpt lat="35.654940" lon="-117.456130">
        <ele>575.282</ele>
        <time>2018-12-28T09:57:39Z</time>
      </trkpt>
      <trkpt lat="35.655010" lon="-117.455970">
        <ele>575.021</ele>
        <time>2018-12-28T09:57:59Z</time>
      </trkpt>
      <trkpt lat="35.655300" lon="-117.455330">
        <ele>574.526</ele>
        <time>2018-12-28T09:58:19Z</time>
      </trkpt>
      <trkpt lat="35.655390" lon="-117.455120">
        <ele>574.438</ele>
        <time>2018-12-28T09:58:39Z</time>
      </trkpt>
      <trkpt lat="35.655500" lon="-117.454880">
        <ele>574.470</ele>
        <time>2018-12-28T09:58:59Z</time>
      </trkpt>
      <trkpt lat="35.655530" lon="-117.454800">
        <ele>574.817</ele>
        <time>2018-12-28T09:59:19Z</time>
      </trkpt>
      <trkpt lat="35.655570" lon="-117.454670">
        <ele>575.308</ele>
        <time>2018-12-28T09:59:39Z</time>
      </trkpt>
      <trkpt lat="35.655620" lon="-117.454540">
        <ele>575.996</ele>
        <time>2018-12-28T09:59:59Z</time>
      </trkpt>
      <trkpt lat="35.655680" lon="-117.454310">
        <ele>576.754</ele>
        <time>2018-12-28T10:00:19Z</time>
      </trkpt>
      <trkpt lat="35.655730" lon="-117.454110">
        <ele>577.039</ele>
        <time>2018-12-28T10:00:39Z</time>
      </trkpt>
      <trkpt lat="35.655750" lon="-117.453980">
        <ele>577.629</ele>
        <time>2018-12-28T10:00:59Z</time>
      </trkpt>
      <trkpt lat="35.655770" lon="-117.453860">
        <ele>578.293</ele>
        <time>2018-12-28T10:01:19Z</time>
      </trkpt>
      <trkpt lat="35.655790" lon="-117.453690">
        <ele>579.227</ele>
        <time>2018-12-28T10:01:39Z</time>
      </trkpt>
      <trkpt lat="35.655800" lon="-117.453530">
        <ele>579.916</ele>
        <time>2018-12-28T10:01:59Z</time>
      </trkpt>
      <trkpt lat="35.655820" lon="-117.453400">
        <ele>579.531</ele>
        <time>2018-12-28T10:02:19Z</time>
      </trkpt>
      <trkpt lat="35.655830" lon="-117.453250">
        <ele>578.796</ele>
        <time>2018-12-28T10:02:39Z</time>
      </trkpt>
      <trkpt lat="35.655840" lon="-117.453110">
        <ele>577.431</ele>
        <time>2018-12-28T10:02:59Z</time>
      </trkpt>
      <trkpt lat="35.655840" lon="-117.453020">
        <ele>576.524</ele>
        <time>2018-12-28T10:03:19Z</time>
      </trkpt>
      <trkpt lat="35.655840" lon="-117.452930">
        <ele>575.708</ele>
        <time>2018-12-28T10:03:39Z</time>
      </trkpt>
      <trkpt lat="35.655840" lon="-117.452860">
        <ele>574.952</ele>
        <time>2018-12-28T10:03:59Z</time>
      </trkpt>
      <trkpt lat="35.655830" lon="-117.452760">
        <ele>573.920</ele>
        <time>2018-12-28T10:04:19Z</time>
      </trkpt>
      <trkpt lat="35.655810" lon="-117.452460">
        <ele>572.135</ele>
        <time>2018-12-28T10:04:39Z</time>
      </trkpt>
      <trkpt lat="35.655780" lon="-117.452210">
        <ele>571.135</ele>
        <time>2018-12-28T10:04:59Z</time>
      </trkpt>
      <trkpt lat="35.655740" lon="-117.451920">
        <ele>570.359</ele>
        <time>2018-12-28T10:05:19Z</time>
      </trkpt>
      <trkpt lat="35.655700" lon="-117.451550">
        <ele>569.143</ele>
        <time>2018-12-28T10:05:39Z</time>
      </trkpt>
      <trkpt lat="35.655640" lon="-117.451030">
        <ele>568.762</ele>
        <time>2018-12-28T10:05:59Z</time>
      </trkpt>
      <trkpt lat="35.655570" lon="-117.450430">
        <ele>568.897</ele>
        <time>2018-12-28T10:06:19Z</time>
      </trkpt>
      <trkpt lat="35.655480" lon="-117.449670">
        <ele>568.929</ele>
        <time>2018-12-28T10:06:39Z</time>
      </trkpt>
      <trkpt lat="35.655440" lon="-117.449330">
        <ele>568.800</ele>
        <time>2018-12-28T10:06:59Z</time>
      </trkpt>
      <trkpt lat="35.655390" lon="-117.448880">
        <ele>568.220</ele>
        <time>2018-12-28T10:07:19Z</time>
      </trkpt>
      <trkpt lat="35.655370" lon="-117.448640">
        <ele>568.108</ele>
        <time>2018-12-28T10:07:39Z</time>
      </trkpt>
      <trkpt lat="35.655360" lon="-117.448420">
        <ele>568.285</ele>
        <time>2018-12-28T10:07:59Z</time>
      </trkpt>
      <trkpt lat="35.655350" lon="-117.448230">
        <ele>568.423</ele>
        <time>2018-12-28T10:08:19Z</time>
      </trkpt>
      <trkpt lat="35.655350" lon="-117.448060">
        <ele>568.418</ele>
        <time>2018-12-28T10:08:39Z</time>
      </trkpt>
      <trkpt lat="35.655360" lon="-117.447910">
        <ele>568.338</ele>
        <time>2018-12-28T10:08:59Z</time>
      </trkpt>
      <trkpt lat="35.655380" lon="-117.447740">
        <ele>567.992</ele>
        <time>2018-12-28T10:09:19Z</time>
      </trkpt>
      <trkpt lat="35.655380" lon="-117.447660">
        <ele>567.846</ele>
        <time>2018-12-28T10:09:39Z</time>
      </trkpt>
      <trkpt lat="35.655400" lon="-117.447570">
        <ele>567.525</ele>
        <time>2018-12-28T10:09:59Z</time>
      </trkpt>
      <trkpt lat="35.655420" lon="-117.447420">
        <ele>567.250</ele>
        <time>2018-12-28T10:10:19Z</time>
      </trkpt>
      <trkpt lat="35.655460" lon="-117.447200">
        <ele>567.161</ele>
        <time>2018-12-28T10:10:39Z</time>
      </trkpt>
      <trkpt lat="35.655520" lon="-117.446940">
        <ele>567.221</ele>
        <time>2018-12-28T10:10:59Z</time>
      </trkpt>
      <trkpt lat="35.655570" lon="-117.446780">
        <ele>567.013</ele>
        <time>2018-12-28T10:11:19Z</time>
      </trkpt>
      <trkpt lat="35.655610" lon="-117.446660">
        <ele>567.108</ele>
        <time>2018-12-28T10:11:39Z</time>
      </trkpt>
      <trkpt lat="35.655780" lon="-117.446160">
        <ele>568.319</ele>
        <time>2018-12-28T10:11:59Z</time>
      </trkpt>
      <trkpt lat="35.656370" lon="-117.444640">
        <ele>566.217</ele>
        <time>2018-12-28T10:12:19Z</time>
      </trkpt>
      <trkpt lat="35.656700" lon="-117.443820">
        <ele>561.062</ele>
        <time>2018-12-28T10:12:39Z</time>
      </trkpt>
      <trkpt lat="35.657960" lon="-117.440540">
        <ele>558.732</ele>
        <time>2018-12-28T10:12:59Z</time>
      </trkpt>
      <trkpt lat="35.658060" lon="-117.440270">
        <ele>559.636</ele>
        <time>2018-12-28T10:13:19Z</time>
      </trkpt>
      <trkpt lat="35.658180" lon="-117.439960">
        <ele>557.330</ele>
        <time>2018-12-28T10:13:39Z</time>
      </trkpt>
      <trkpt lat="35.658490" lon="-117.439160">
        <ele>555.159</ele>
        <time>2018-12-28T10:13:59Z</time>
      </trkpt>
      <trkpt lat="35.658700" lon="-117.438620">
        <ele>554.434</ele>
        <time>2018-12-28T10:14:19Z</time>
      </trkpt>
      <trkpt lat="35.658960" lon="-117.437960">
        <ele>555.276</ele>
        <time>2018-12-28T10:14:39Z</time>
      </trkpt>
      <trkpt lat="35.659160" lon="-117.437420">
        <ele>554.190</ele>
        <time>2018-12-28T10:14:59Z</time>
      </trkpt>
      <trkpt lat="35.660140" lon="-117.434910">
        <ele>549.919</ele>
        <time>2018-12-28T10:15:19Z</time>
      </trkpt>
      <trkpt lat="35.660450" lon="-117.434200">
        <ele>548.608</ele>
        <time>2018-12-28T10:15:39Z</time>
      </trkpt>
      <trkpt lat="35.660590" lon="-117.433890">
        <ele>548.060</ele>
        <time>2018-12-28T10:15:59Z</time>
      </trkpt>
      <trkpt lat="35.661270" lon="-117.432430">
        <ele>549.128</ele>
        <time>2018-12-28T10:16:19Z</time>
      </trkpt>
      <trkpt lat="35.661570" lon="-117.431800">
        <ele>547.653</ele>
        <time>2018-12-28T10:16:39Z</time>
      </trkpt>
      <trkpt lat="35.662360" lon="-117.430120">
        <ele>544.643</ele>
        <time>2018-12-28T10:16:59Z</time>
      </trkpt>
      <trkpt lat="35.662710" lon="-117.429420">
        <ele>542.937</ele>
        <time>2018-12-28T10:17:19Z</time>
      </trkpt>
      <trkpt lat="35.662850" lon="-117.429170">
        <ele>542.571</ele>
        <time>2018-12-28T10:17:39Z</time>
      </trkpt>
      <trkpt lat="35.662930" lon="-117.429040">
        <ele>542.460</ele>
        <time>2018-12-28T10:17:59Z</time>
      </trkpt>
      <trkpt lat="35.663010" lon="-117.428930">
        <ele>542.255</ele>
        <time>2018-12-28T10:18:19Z</time>
      </trkpt>
      <trkpt lat="35.663110" lon="-117.428800">
        <ele>542.071</ele>
        <time>2018-12-28T10:18:39Z</time>
      </trkpt>
      <trkpt lat="35.663190" lon="-117.428700">
        <ele>541.941</ele>
        <time>2018-12-28T10:18:59Z</time>
      </trkpt>
      <trkpt lat="35.663390" lon="-117.428490">
        <ele>541.615</ele>
        <time>2018-12-28T10:19:19Z</time>
      </trkpt>
      <trkpt lat="35.663490" lon="-117.428390">
        <ele>541.508</ele>
        <time>2018-12-28T10:19:39Z</time>
      </trkpt>
      <trkpt lat="35.663620" lon="-117.428290">
        <ele>541.280</ele>
        <time>2018-12-28T10:19:59Z</time>
      </trkpt>
      <trkpt lat="35.663740" lon="-117.428190">
        <ele>541.058</ele>
        <time>2018-12-28T10:20:19Z</time>
      </trkpt>
      <trkpt lat="35.663880" lon="-117.428080">
        <ele>540.733</ele>
        <time>2018-12-28T10:20:39Z</time>
      </trkpt>
      <trkpt lat="35.664040" lon="-117.427990">
        <ele>540.233</ele>
        <time>2018-12-28T10:20:59Z</time>
      </trkpt>
      <trkpt lat="35.664110" lon="-117.427940">
        <ele>540.017</ele>
        <time>2018-12-28T10:21:19Z</time>
      </trkpt>
      <trkpt lat="35.664200" lon="-117.427900">
        <ele>539.751</ele>
        <time>2018-12-28T10:21:39Z</time>
      </trkpt>
      <trkpt lat="35.664370" lon="-117.427820">
        <ele>539.150</ele>
        <time>2018-12-28T10:21:59Z</time>
      </trkpt>
      <trkpt lat="35.664750" lon="-117.427660">
        <ele>538.435</ele>
        <time>2018-12-28T10:22:19Z</time>
      </trkpt>
      <trkpt lat="35.666290" lon="-117.427040">
        <ele>538.984</ele>
        <time>2018-12-28T10:22:39Z</time>
      </trkpt>
      <trkpt lat="35.666530" lon="-117.426930">
        <ele>542.907</ele>
        <time>2018-12-28T10:22:59Z</time>
      </trkpt>
      <trkpt lat="35.666630" lon="-117.426880">
        <ele>544.117</ele>
        <time>2018-12-28T10:23:19Z</time>
      </trkpt>
      <trkpt lat="35.666730" lon="-117.426830">
        <ele>545.208</ele>
        <time>2018-12-28T10:23:39Z</time>
      </trkpt>
      <trkpt lat="35.666810" lon="-117.426780">
        <ele>546.271</ele>
        <time>2018-12-28T10:23:59Z</time>
      </trkpt>
      <trkpt lat="35.666900" lon="-117.426710">
        <ele>547.049</ele>
        <time>2018-12-28T10:24:19Z</time>
      </trkpt>
      <trkpt lat="35.667030" lon="-117.426620">
        <ele>547.594</ele>
        <time>2018-12-28T10:24:39Z</time>
      </trkpt>
      <trkpt lat="35.667210" lon="-117.426480">
        <ele>545.694</ele>
        <time>2018-12-28T10:24:59Z</time>
      </trkpt>
      <trkpt lat="35.667400" lon="-117.426310">
        <ele>542.678</ele>
        <time>2018-12-28T10:25:19Z</time>
      </trkpt>
      <trkpt lat="35.667470" lon="-117.426240">
        <ele>542.182</ele>
        <time>2018-12-28T10:25:39Z</time>
      </trkpt>
      <trkpt lat="35.667520" lon="-117.426190">
        <ele>541.621</ele>
        <time>2018-12-28T10:25:59Z</time>
      </trkpt>
      <trkpt lat="35.667610" lon="-117.426090">
        <ele>540.316</ele>
        <time>2018-12-28T10:26:19Z</time>
      </trkpt>
      <trkpt lat="35.667740" lon="-117.425940">
        <ele>538.452</ele>
        <time>2018-12-28T10:26:39Z</time>
      </trkpt>
      <trkpt lat="35.667860" lon="-117.425780">
        <ele>537.253</ele>
        <time>2018-12-28T10:26:59Z</time>
      </trkpt>
      <trkpt lat="35.667940" lon="-117.425670">
        <ele>536.708</ele>
        <time>2018-12-28T10:27:19Z</time>
      </trkpt>
      <trkpt lat="35.668030" lon="-117.425520">
        <ele>536.408</ele>
        <time>2018-12-28T10:27:39Z</time>
      </trkpt>
      <trkpt lat="35.668090" lon="-117.425420">
        <ele>536.238</ele>
        <time>2018-12-28T10:27:59Z</time>
      </trkpt>
      <trkpt lat="35.668160" lon="-117.425260">
        <ele>536.186</ele>
        <time>2018-12-28T10:28:19Z</time>
      </trkpt>
      <trkpt lat="35.668220" lon="-117.425150">
        <ele>536.011</ele>
        <time>2018-12-28T10:28:39Z</time>
      </trkpt>
      <trkpt lat="35.668270" lon="-117.425030">
        <ele>535.811</ele>
        <time>2018-12-28T10:28:59Z</time>
      </trkpt>
      <trkpt lat="35.668350" lon="-117.424830">
        <ele>535.655</ele>
        <time>2018-12-28T10:29:19Z</time>
      </trkpt>
      <trkpt lat="35.668410" lon="-117.424660">
        <ele>535.549</ele>
        <time>2018-12-28T10:29:39Z</time>
      </trkpt>
      <trkpt lat="35.668480" lon="-117.424420">
        <ele>535.218</ele>
        <time>2018-12-28T10:29:59Z</time>
      </trkpt>
      <trkpt lat="35.668550" lon="-117.424120">
        <ele>534.633</ele>
        <time>2018-12-28T10:30:19Z</time>
      </trkpt>
      <trkpt lat="35.668680" lon="-117.423520">
        <ele>531.912</ele>
        <time>2018-12-28T10:30:39Z</time>
      </trkpt>
      <trkpt lat="35.668900" lon="-117.422480">
        <ele>531.032</ele>
        <time>2018-12-28T10:30:59Z</time>
      </trkpt>
      <trkpt lat="35.669080" lon="-117.421560">
        <ele>530.405</ele>
        <time>2018-12-28T10:31:19Z</time>
      </trkpt>
      <trkpt lat="35.669280" lon="-117.420570">
        <ele>529.708</ele>
        <time>2018-12-28T10:31:39Z</time>
      </trkpt>
      <trkpt lat="35.669480" lon="-117.419590">
        <ele>528.944</ele>
        <time>2018-12-28T10:31:59Z</time>
      </trkpt>
      <trkpt lat="35.669620" lon="-117.418900">
        <ele>528.152</ele>
        <time>2018-12-28T10:32:19Z</time>
      </trkpt>
      <trkpt lat="35.669720" lon="-117.418490">
        <ele>527.557</ele>
        <time>2018-12-28T10:32:39Z</time>
      </trkpt>
      <trkpt lat="35.669750" lon="-117.418350">
        <ele>527.457</ele>
        <time>2018-12-28T10:32:59Z</time>
      </trkpt>
      <trkpt lat="35.669780" lon="-117.418240">
        <ele>527.251</ele>
        <time>2018-12-28T10:33:19Z</time>
      </trkpt>
      <trkpt lat="35.669840" lon="-117.418060">
        <ele>526.985</ele>
        <time>2018-12-28T10:33:39Z</time>
      </trkpt>
      <trkpt lat="35.669880" lon="-117.417920">
        <ele>526.794</ele>
        <time>2018-12-28T10:33:59Z</time>
      </trkpt>
      <trkpt lat="35.669940" lon="-117.417750">
        <ele>526.589</ele>
        <time>2018-12-28T10:34:19Z</time>
      </trkpt>
      <trkpt lat="35.670050" lon="-117.417460">
        <ele>526.017</ele>
        <time>2018-12-28T10:34:39Z</time>
      </trkpt>
      <trkpt lat="35.670170" lon="-117.417120">
        <ele>525.987</ele>
        <time>2018-12-28T10:34:59Z</time>
      </trkpt>
      <trkpt lat="35.670530" lon="-117.416200">
        <ele>525.415</ele>
        <time>2018-12-28T10:35:19Z</time>
      </trkpt>
      <trkpt lat="35.670610" lon="-117.416010">
        <ele>525.108</ele>
        <time>2018-12-28T10:35:39Z</time>
      </trkpt>
      <trkpt lat="35.670700" lon="-117.415790">
        <ele>524.944</ele>
        <time>2018-12-28T10:35:59Z</time>
      </trkpt>
      <trkpt lat="35.670920" lon="-117.415310">
        <ele>524.642</ele>
        <time>2018-12-28T10:36:19Z</time>
      </trkpt>
      <trkpt lat="35.671110" lon="-117.414920">
        <ele>524.497</ele>
        <time>2018-12-28T10:36:39Z</time>
      </trkpt>
      <trkpt lat="35.671700" lon="-117.413640">
        <ele>523.547</ele>
        <time>2018-12-28T10:36:59Z</time>
      </trkpt>
      <trkpt lat="35.671970" lon="-117.413090">
        <ele>523.111</ele>
        <time>2018-12-28T10:37:19Z</time>
      </trkpt>
      <trkpt lat="35.672430" lon="-117.412110">
        <ele>522.385</ele>
        <time>2018-12-28T10:37:39Z</time>
      </trkpt>
      <trkpt lat="35.672680" lon="-117.411550">
        <ele>521.824</ele>
        <time>2018-12-28T10:37:59Z</time>
      </trkpt>
      <trkpt lat="35.673270" lon="-117.410250">
        <ele>520.529</ele>
        <time>2018-12-28T10:38:19Z</time>
      </trkpt>
      <trkpt lat="35.674210" lon="-117.408200">
        <ele>519.127</ele>
        <time>2018-12-28T10:38:39Z</time>
      </trkpt>
      <trkpt lat="35.674390" lon="-117.407780">
        <ele>521.368</ele>
        <time>2018-12-28T10:38:59Z</time>
      </trkpt>
      <trkpt lat="35.674740" lon="-117.407020">
        <ele>521.414</ele>
        <time>2018-12-28T10:39:19Z</time>
      </trkpt>
      <trkpt lat="35.675360" lon="-117.405630">
        <ele>518.608</ele>
        <time>2018-12-28T10:39:39Z</time>
      </trkpt>
      <trkpt lat="35.675660" lon="-117.404970">
        <ele>517.995</ele>
        <time>2018-12-28T10:39:59Z</time>
      </trkpt>
      <trkpt lat="35.676120" lon="-117.403960">
        <ele>517.093</ele>
        <time>2018-12-28T10:40:19Z</time>
      </trkpt>
      <trkpt lat="35.676460" lon="-117.403210">
        <ele>516.698</ele>
        <time>2018-12-28T10:40:39Z</time>
      </trkpt>
      <trkpt lat="35.676660" lon="-117.402760">
        <ele>516.578</ele>
        <time>2018-12-28T10:40:59Z</time>
      </trkpt>
      <trkpt lat="35.676870" lon="-117.402290">
        <ele>516.372</ele>
        <time>2018-12-28T10:41:19Z</time>
      </trkpt>
      <trkpt lat="35.677140" lon="-117.401690">
        <ele>516.296</ele>
        <time>2018-12-28T10:41:39Z</time>
      </trkpt>
      <trkpt lat="35.677350" lon="-117.401210">
        <ele>516.135</ele>
        <time>2018-12-28T10:41:59Z</time>
      </trkpt>
      <trkpt lat="35.677520" lon="-117.400820">
        <ele>516.050</ele>
        <time>2018-12-28T10:42:19Z</time>
      </trkpt>
      <trkpt lat="35.677920" lon="-117.399930">
        <ele>516.444</ele>
        <time>2018-12-28T10:42:39Z</time>
      </trkpt>
      <trkpt lat="35.678360" lon="-117.398940">
        <ele>516.805</ele>
        <time>2018-12-28T10:42:59Z</time>
      </trkpt>
      <trkpt lat="35.678520" lon="-117.398560">
        <ele>517.115</ele>
        <time>2018-12-28T10:43:19Z</time>
      </trkpt>
      <trkpt lat="35.678670" lon="-117.398230">
        <ele>517.308</ele>
        <time>2018-12-28T10:43:39Z</time>
      </trkpt>
      <trkpt lat="35.679210" lon="-117.396990">
        <ele>515.447</ele>
        <time>2018-12-28T10:43:59Z</time>
      </trkpt>
      <trkpt lat="35.679510" lon="-117.396280">
        <ele>514.855</ele>
        <time>2018-12-28T10:44:19Z</time>
      </trkpt>
      <trkpt lat="35.679630" lon="-117.396000">
        <ele>514.550</ele>
        <time>2018-12-28T10:44:39Z</time>
      </trkpt>
      <trkpt lat="35.679760" lon="-117.395720">
        <ele>514.440</ele>
        <time>2018-12-28T10:44:59Z</time>
      </trkpt>
      <trkpt lat="35.679990" lon="-117.395180">
        <ele>514.134</ele>
        <time>2018-12-28T10:45:19Z</time>
      </trkpt>
      <trkpt lat="35.680180" lon="-117.394740">
        <ele>514.068</ele>
        <time>2018-12-28T10:45:39Z</time>
      </trkpt>
      <trkpt lat="35.680460" lon="-117.394090">
        <ele>513.897</ele>
        <time>2018-12-28T10:45:59Z</time>
      </trkpt>
      <trkpt lat="35.680840" lon="-117.393210">
        <ele>513.452</ele>
        <time>2018-12-28T10:46:19Z</time>
      </trkpt>
      <trkpt lat="35.681110" lon="-117.392580">
        <ele>513.077</ele>
        <time>2018-12-28T10:46:39Z</time>
      </trkpt>
      <trkpt lat="35.681370" lon="-117.391960">
        <ele>513.061</ele>
        <time>2018-12-28T10:46:59Z</time>
      </trkpt>
      <trkpt lat="35.681470" lon="-117.391720">
        <ele>513.027</ele>
        <time>2018-12-28T10:47:19Z</time>
      </trkpt>
      <trkpt lat="35.681560" lon="-117.391510">
        <ele>512.908</ele>
        <time>2018-12-28T10:47:39Z</time>
      </trkpt>
      <trkpt lat="35.682430" lon="-117.389520">
        <ele>510.820</ele>
        <time>2018-12-28T10:47:59Z</time>
      </trkpt>
      <trkpt lat="35.682540" lon="-117.389260">
        <ele>510.678</ele>
        <time>2018-12-28T10:48:19Z</time>
      </trkpt>
      <trkpt lat="35.682690" lon="-117.388920">
        <ele>510.573</ele>
        <time>2018-12-28T10:48:39Z</time>
      </trkpt>
      <trkpt lat="35.682870" lon="-117.388530">
        <ele>510.253</ele>
        <time>2018-12-28T10:48:59Z</time>
      </trkpt>
      <trkpt lat="35.682990" lon="-117.388270">
        <ele>510.147</ele>
        <time>2018-12-28T10:49:19Z</time>
      </trkpt>
      <trkpt lat="35.683080" lon="-117.388090">
        <ele>510.031</ele>
        <time>2018-12-28T10:49:39Z</time>
      </trkpt>
      <trkpt lat="35.683560" lon="-117.387020">
        <ele>508.820</ele>
        <time>2018-12-28T10:49:59Z</time>
      </trkpt>
      <trkpt lat="35.683870" lon="-117.386330">
        <ele>508.425</ele>
        <time>2018-12-28T10:50:19Z</time>
      </trkpt>
      <trkpt lat="35.684170" lon="-117.385680">
        <ele>510.229</ele>
        <time>2018-12-28T10:50:39Z</time>
      </trkpt>
      <trkpt lat="35.684340" lon="-117.385300">
        <ele>510.500</ele>
        <time>2018-12-28T10:50:59Z</time>
      </trkpt>
      <trkpt lat="35.684440" lon="-117.385090">
        <ele>510.920</ele>
        <time>2018-12-28T10:51:19Z</time>
      </trkpt>
      <trkpt lat="35.684540" lon="-117.384910">
        <ele>510.608</ele>
        <time>2018-12-28T10:51:39Z</time>
      </trkpt>
      <trkpt lat="35.684590" lon="-117.384820">
        <ele>510.355</ele>
        <time>2018-12-28T10:51:59Z</time>
      </trkpt>
      <trkpt lat="35.684640" lon="-117.384750">
        <ele>510.553</ele>
        <time>2018-12-28T10:52:19Z</time>
      </trkpt>
      <trkpt lat="35.684770" lon="-117.384560">
        <ele>509.998</ele>
        <time>2018-12-28T10:52:39Z</time>
      </trkpt>
      <trkpt lat="35.684820" lon="-117.384500">
        <ele>509.978</ele>
        <time>2018-12-28T10:52:59Z</time>
      </trkpt>
      <trkpt lat="35.684860" lon="-117.384460">
        <ele>509.982</ele>
        <time>2018-12-28T10:53:19Z</time>
      </trkpt>
      <trkpt lat="35.684980" lon="-117.384330">
        <ele>510.416</ele>
        <time>2018-12-28T10:53:39Z</time>
      </trkpt>
      <trkpt lat="35.685070" lon="-117.384240">
        <ele>510.445</ele>
        <time>2018-12-28T10:53:59Z</time>
      </trkpt>
      <trkpt lat="35.685170" lon="-117.384160">
        <ele>510.480</ele>
        <time>2018-12-28T10:54:19Z</time>
      </trkpt>
      <trkpt lat="35.685270" lon="-117.384090">
        <ele>510.533</ele>
        <time>2018-12-28T10:54:39Z</time>
      </trkpt>
      <trkpt lat="35.685340" lon="-117.384050">
        <ele>510.623</ele>
        <time>2018-12-28T10:54:59Z</time>
      </trkpt>
      <trkpt lat="35.685580" lon="-117.383930">
        <ele>511.615</ele>
        <time>2018-12-28T10:55:19Z</time>
      </trkpt>
      <trkpt lat="35.686350" lon="-117.383610">
        <ele>515.508</ele>
        <time>2018-12-28T10:55:39Z</time>
      </trkpt>
      <trkpt lat="35.686620" lon="-117.383500">
        <ele>517.426</ele>
        <time>2018-12-28T10:55:59Z</time>
      </trkpt>
      <trkpt lat="35.687060" lon="-117.383330">
        <ele>519.254</ele>
        <time>2018-12-28T10:56:19Z</time>
      </trkpt>
      <trkpt lat="35.687210" lon="-117.383280">
        <ele>518.489</ele>
        <time>2018-12-28T10:56:39Z</time>
      </trkpt>
      <trkpt lat="35.687370" lon="-117.383230">
        <ele>517.149</ele>
        <time>2018-12-28T10:56:59Z</time>
      </trkpt>
      <trkpt lat="35.687530" lon="-117.383190">
        <ele>515.543</ele>
        <time>2018-12-28T10:57:19Z</time>
      </trkpt>
      <trkpt lat="35.687790" lon="-117.383150">
        <ele>513.267</ele>
        <time>2018-12-28T10:57:39Z</time>
      </trkpt>
      <trkpt lat="35.687960" lon="-117.383130">
        <ele>511.776</ele>
        <time>2018-12-28T10:57:59Z</time>
      </trkpt>
      <trkpt lat="35.688140" lon="-117.383110">
        <ele>509.841</ele>
        <time>2018-12-28T10:58:19Z</time>
      </trkpt>
      <trkpt lat="35.688460" lon="-117.383090">
        <ele>507.538</ele>
        <time>2018-12-28T10:58:39Z</time>
      </trkpt>
      <trkpt lat="35.688650" lon="-117.383080">
        <ele>507.070</ele>
        <time>2018-12-28T10:58:59Z</time>
      </trkpt>
      <trkpt lat="35.689530" lon="-117.383030">
        <ele>504.717</ele>
        <time>2018-12-28T10:59:19Z</time>
      </trkpt>
      <trkpt lat="35.690120" lon="-117.383010">
        <ele>504.508</ele>
        <time>2018-12-28T10:59:39Z</time>
      </trkpt>
      <trkpt lat="35.690540" lon="-117.382990">
        <ele>503.816</ele>
        <time>2018-12-28T10:59:59Z</time>
      </trkpt>
      <trkpt lat="35.690950" lon="-117.382960">
        <ele>503.974</ele>
        <time>2018-12-28T11:00:19Z</time>
      </trkpt>
      <trkpt lat="35.691480" lon="-117.382940">
        <ele>503.489</ele>
        <time>2018-12-28T11:00:39Z</time>
      </trkpt>
      <trkpt lat="35.693410" lon="-117.382840">
        <ele>500.789</ele>
        <time>2018-12-28T11:00:59Z</time>
      </trkpt>
      <trkpt lat="35.693560" lon="-117.382830">
        <ele>500.793</ele>
        <time>2018-12-28T11:01:19Z</time>
      </trkpt>
      <trkpt lat="35.693650" lon="-117.382820">
        <ele>500.767</ele>
        <time>2018-12-28T11:01:39Z</time>
      </trkpt>
      <trkpt lat="35.694130" lon="-117.382800">
        <ele>500.766</ele>
        <time>2018-12-28T11:01:59Z</time>
      </trkpt>
      <trkpt lat="35.694480" lon="-117.382780">
        <ele>500.871</ele>
        <time>2018-12-28T11:02:19Z</time>
      </trkpt>
      <trkpt lat="35.695000" lon="-117.382750">
        <ele>501.797</ele>
        <time>2018-12-28T11:02:39Z</time>
      </trkpt>
      <trkpt lat="35.695280" lon="-117.382740">
        <ele>502.923</ele>
        <time>2018-12-28T11:02:59Z</time>
      </trkpt>
      <trkpt lat="35.695470" lon="-117.382740">
        <ele>503.525</ele>
        <time>2018-12-28T11:03:19Z</time>
      </trkpt>
      <trkpt lat="35.695640" lon="-117.382740">
        <ele>504.008</ele>
        <time>2018-12-28T11:03:39Z</time>
      </trkpt>
      <trkpt lat="35.695730" lon="-117.382740">
        <ele>504.172</ele>
        <time>2018-12-28T11:03:59Z</time>
      </trkpt>
      <trkpt lat="35.695880" lon="-117.382750">
        <ele>504.320</ele>
        <time>2018-12-28T11:04:19Z</time>
      </trkpt>
      <trkpt lat="35.696060" lon="-117.382780">
        <ele>504.775</ele>
        <time>2018-12-28T11:04:39Z</time>
      </trkpt>
      <trkpt lat="35.696180" lon="-117.382810">
        <ele>505.225</ele>
        <time>2018-12-28T11:04:59Z</time>
      </trkpt>
      <trkpt lat="35.696360" lon="-117.382860">
        <ele>505.549</ele>
        <time>2018-12-28T11:05:19Z</time>
      </trkpt>
      <trkpt lat="35.696480" lon="-117.382900">
        <ele>505.623</ele>
        <time>2018-12-28T11:05:39Z</time>
      </trkpt>
      <trkpt lat="35.696620" lon="-117.382960">
        <ele>505.592</ele>
        <time>2018-12-28T11:05:59Z</time>
      </trkpt>
      <trkpt lat="35.696800" lon="-117.383030">
        <ele>504.457</ele>
        <time>2018-12-28T11:06:19Z</time>
      </trkpt>
      <trkpt lat="35.696950" lon="-117.383110">
        <ele>504.432</ele>
        <time>2018-12-28T11:06:39Z</time>
      </trkpt>
      <trkpt lat="35.697080" lon="-117.383190">
        <ele>504.792</ele>
        <time>2018-12-28T11:06:59Z</time>
      </trkpt>
      <trkpt lat="35.697190" lon="-117.383260">
        <ele>505.311</ele>
        <time>2018-12-28T11:07:19Z</time>
      </trkpt>
      <trkpt lat="35.697500" lon="-117.383510">
        <ele>506.508</ele>
        <time>2018-12-28T11:07:39Z</time>
      </trkpt>
      <trkpt lat="35.697740" lon="-117.383770">
        <ele>508.666</ele>
        <time>2018-12-28T11:07:59Z</time>
      </trkpt>
      <trkpt lat="35.697890" lon="-117.383930">
        <ele>507.614</ele>
        <time>2018-12-28T11:08:19Z</time>
      </trkpt>
      <trkpt lat="35.698010" lon="-117.384090">
        <ele>507.629</ele>
        <time>2018-12-28T11:08:39Z</time>
      </trkpt>
      <trkpt lat="35.698150" lon="-117.384290">
        <ele>506.849</ele>
        <time>2018-12-28T11:08:59Z</time>
      </trkpt>
      <trkpt lat="35.698390" lon="-117.384720">
        <ele>506.913</ele>
        <time>2018-12-28T11:09:19Z</time>
      </trkpt>
      <trkpt lat="35.698560" lon="-117.385100">
        <ele>504.247</ele>
        <time>2018-12-28T11:09:39Z</time>
      </trkpt>
      <trkpt lat="35.698680" lon="-117.385470">
        <ele>503.126</ele>
        <time>2018-12-28T11:09:59Z</time>
      </trkpt>
      <trkpt lat="35.698860" lon="-117.386080">
        <ele>502.961</ele>
        <time>2018-12-28T11:10:19Z</time>
      </trkpt>
      <trkpt lat="35.699100" lon="-117.386920">
        <ele>503.439</ele>
        <time>2018-12-28T11:10:39Z</time>
      </trkpt>
      <trkpt lat="35.699370" lon="-117.387890">
        <ele>504.201</ele>
        <time>2018-12-28T11:10:59Z</time>
      </trkpt>
      <trkpt lat="35.699540" lon="-117.388510">
        <ele>505.421</ele>
        <time>2018-12-28T11:11:19Z</time>
      </trkpt>
      <trkpt lat="35.699600" lon="-117.388710">
        <ele>505.708</ele>
        <time>2018-12-28T11:11:39Z</time>
      </trkpt>
      <trkpt lat="35.699830" lon="-117.389560">
        <ele>505.746</ele>
        <time>2018-12-28T11:11:59Z</time>
      </trkpt>
      <trkpt lat="35.700050" lon="-117.390390">
        <ele>506.174</ele>
        <time>2018-12-28T11:12:19Z</time>
      </trkpt>
      <trkpt lat="35.700260" lon="-117.391090">
        <ele>504.959</ele>
        <time>2018-12-28T11:12:39Z</time>
      </trkpt>
      <trkpt lat="35.700350" lon="-117.391370">
        <ele>504.529</ele>
        <time>2018-12-28T11:12:59Z</time>
      </trkpt>
      <trkpt lat="35.700460" lon="-117.391660">
        <ele>504.233</ele>
        <time>2018-12-28T11:13:19Z</time>
      </trkpt>
      <trkpt lat="35.700550" lon="-117.391860">
        <ele>503.817</ele>
        <time>2018-12-28T11:13:39Z</time>
      </trkpt>
      <trkpt lat="35.700680" lon="-117.392130">
        <ele>503.346</ele>
        <time>2018-12-28T11:13:59Z</time>
      </trkpt>
      <trkpt lat="35.700780" lon="-117.392320">
        <ele>503.691</ele>
        <time>2018-12-28T11:14:19Z</time>
      </trkpt>
      <trkpt lat="35.700890" lon="-117.392520">
        <ele>504.021</ele>
        <time>2018-12-28T11:14:39Z</time>
      </trkpt>
      <trkpt lat="35.701060" lon="-117.392810">
        <ele>504.541</ele>
        <time>2018-12-28T11:14:59Z</time>
      </trkpt>
      <trkpt lat="35.701190" lon="-117.393010">
        <ele>505.105</ele>
        <time>2018-12-28T11:15:19Z</time>
      </trkpt>
      <trkpt lat="35.701340" lon="-117.393210">
        <ele>505.908</ele>
        <time>2018-12-28T11:15:39Z</time>
      </trkpt>
      <trkpt lat="35.701460" lon="-117.393360">
        <ele>506.545</ele>
        <time>2018-12-28T11:15:59Z</time>
      </trkpt>
      <trkpt lat="35.701580" lon="-117.393510">
        <ele>507.023</ele>
        <time>2018-12-28T11:16:19Z</time>
      </trkpt>
      <trkpt lat="35.701770" lon="-117.393710">
        <ele>507.868</ele>
        <time>2018-12-28T11:16:39Z</time>
      </trkpt>
      <trkpt lat="35.701950" lon="-117.393900">
        <ele>508.448</ele>
        <time>2018-12-28T11:16:59Z</time>
      </trkpt>
      <trkpt lat="35.702020" lon="-117.393960">
        <ele>508.732</ele>
        <time>2018-12-28T11:17:19Z</time>
      </trkpt>
      <trkpt lat="35.702180" lon="-117.394100">
        <ele>509.396</ele>
        <time>2018-12-28T11:17:39Z</time>
      </trkpt>
      <trkpt lat="35.702430" lon="-117.394300">
        <ele>510.075</ele>
        <time>2018-12-28T11:17:59Z</time>
      </trkpt>
      <trkpt lat="35.702520" lon="-117.394380">
        <ele>510.210</ele>
        <time>2018-12-28T11:18:19Z</time>
      </trkpt>
      <trkpt lat="35.702790" lon="-117.394570">
        <ele>510.497</ele>
        <time>2018-12-28T11:18:39Z</time>
      </trkpt>
      <trkpt lat="35.703030" lon="-117.394730">
        <ele>510.423</ele>
        <time>2018-12-28T11:18:59Z</time>
      </trkpt>
      <trkpt lat="35.703530" lon="-117.395070">
        <ele>510.925</ele>
        <time>2018-12-28T11:19:19Z</time>
      </trkpt>
      <trkpt lat="35.703820" lon="-117.395260">
        <ele>511.208</ele>
        <time>2018-12-28T11:19:39Z</time>
      </trkpt>
      <trkpt lat="35.704120" lon="-117.395460">
        <ele>511.322</ele>
        <time>2018-12-28T11:19:59Z</time>
      </trkpt>
      <trkpt lat="35.704260" lon="-117.395540">
        <ele>511.320</ele>
        <time>2018-12-28T11:20:19Z</time>
      </trkpt>
      <trkpt lat="35.704360" lon="-117.395580">
        <ele>511.395</ele>
        <time>2018-12-28T11:20:39Z</time>
      </trkpt>
      <trkpt lat="35.704480" lon="-117.395630">
        <ele>511.235</ele>
        <time>2018-12-28T11:20:59Z</time>
      </trkpt>
      <trkpt lat="35.704600" lon="-117.395680">
        <ele>511.229</ele>
        <time>2018-12-28T11:21:19Z</time>
      </trkpt>
      <trkpt lat="35.704730" lon="-117.395720">
        <ele>511.123</ele>
        <time>2018-12-28T11:21:39Z</time>
      </trkpt>
      <trkpt lat="35.704990" lon="-117.395780">
        <ele>510.932</ele>
        <time>2018-12-28T11:21:59Z</time>
      </trkpt>
      <trkpt lat="35.705140" lon="-117.395810">
        <ele>510.917</ele>
        <time>2018-12-28T11:22:19Z</time>
      </trkpt>
      <trkpt lat="35.705290" lon="-117.395820">
        <ele>511.055</ele>
        <time>2018-12-28T11:22:39Z</time>
      </trkpt>
      <trkpt lat="35.705480" lon="-117.395820">
        <ele>511.107</ele>
        <time>2018-12-28T11:22:59Z</time>
      </trkpt>
      <trkpt lat="35.705670" lon="-117.395810">
        <ele>511.217</ele>
        <time>2018-12-28T11:23:19Z</time>
      </trkpt>
      <trkpt lat="35.705980" lon="-117.395760">
        <ele>510.708</ele>
        <time>2018-12-28T11:23:39Z</time>
      </trkpt>
      <trkpt lat="35.706310" lon="-117.395720">
        <ele>508.848</ele>
        <time>2018-12-28T11:23:59Z</time>
      </trkpt>
      <trkpt lat="35.706600" lon="-117.395710">
        <ele>507.186</ele>
        <time>2018-12-28T11:24:19Z</time>
      </trkpt>
      <trkpt lat="35.706860" lon="-117.395730">
        <ele>506.791</ele>
        <time>2018-12-28T11:24:39Z</time>
      </trkpt>
      <trkpt lat="35.706950" lon="-117.395750">
        <ele>506.681</ele>
        <time>2018-12-28T11:24:59Z</time>
      </trkpt>
      <trkpt lat="35.707070" lon="-117.395770">
        <ele>506.555</ele>
        <time>2018-12-28T11:25:19Z</time>
      </trkpt>
      <trkpt lat="35.707210" lon="-117.395810">
        <ele>506.489</ele>
        <time>2018-12-28T11:25:39Z</time>
      </trkpt>
      <trkpt lat="35.707330" lon="-117.395860">
        <ele>506.298</ele>
        <time>2018-12-28T11:25:59Z</time>
      </trkpt>
      <trkpt lat="35.707460" lon="-117.395920">
        <ele>506.083</ele>
        <time>2018-12-28T11:26:19Z</time>
      </trkpt>
      <trkpt lat="35.707600" lon="-117.395990">
        <ele>505.957</ele>
        <time>2018-12-28T11:26:39Z</time>
      </trkpt>
      <trkpt lat="35.707880" lon="-117.396160">
        <ele>504.300</ele>
        <time>2018-12-28T11:26:59Z</time>
      </trkpt>
      <trkpt lat="35.708140" lon="-117.396340">
        <ele>502.620</ele>
        <time>2018-12-28T11:27:19Z</time>
      </trkpt>
      <trkpt lat="35.708650" lon="-117.396680">
        <ele>501.708</ele>
        <time>2018-12-28T11:27:39Z</time>
      </trkpt>
      <trkpt lat="35.709060" lon="-117.396950">
        <ele>501.248</ele>
        <time>2018-12-28T11:27:59Z</time>
      </trkpt>
      <trkpt lat="35.709440" lon="-117.397180">
        <ele>501.186</ele>
        <time>2018-12-28T11:28:19Z</time>
      </trkpt>
      <trkpt lat="35.709810" lon="-117.397380">
        <ele>501.041</ele>
        <time>2018-12-28T11:28:39Z</time>
      </trkpt>
      <trkpt lat="35.710050" lon="-117.397490">
        <ele>501.171</ele>
        <time>2018-12-28T11:28:59Z</time>
      </trkpt>
      <trkpt lat="35.710290" lon="-117.397600">
        <ele>501.275</ele>
        <time>2018-12-28T11:29:19Z</time>
      </trkpt>
      <trkpt lat="35.710590" lon="-117.397720">
        <ele>501.249</ele>
        <time>2018-12-28T11:29:39Z</time>
      </trkpt>
      <trkpt lat="35.710830" lon="-117.397810">
        <ele>501.268</ele>
        <time>2018-12-28T11:29:59Z</time>
      </trkpt>
      <trkpt lat="35.711300" lon="-117.397980">
        <ele>501.393</ele>
        <time>2018-12-28T11:30:19Z</time>
      </trkpt>
      <trkpt lat="35.711620" lon="-117.398080">
        <ele>501.688</ele>
        <time>2018-12-28T11:30:39Z</time>
      </trkpt>
      <trkpt lat="35.711800" lon="-117.398140">
        <ele>501.824</ele>
        <time>2018-12-28T11:30:59Z</time>
      </trkpt>
      <trkpt lat="35.712060" lon="-117.398210">
        <ele>502.126</ele>
        <time>2018-12-28T11:31:19Z</time>
      </trkpt>
      <trkpt lat="35.712140" lon="-117.398230">
        <ele>502.208</ele>
        <time>2018-12-28T11:31:39Z</time>
      </trkpt>
      <trkpt lat="35.712680" lon="-117.398370">
        <ele>503.051</ele>
        <time>2018-12-28T11:31:59Z</time>
      </trkpt>
      <trkpt lat="35.713410" lon="-117.398580">
        <ele>504.279</ele>
        <time>2018-12-28T11:32:19Z</time>
      </trkpt>
      <trkpt lat="35.714080" lon="-117.398770">
        <ele>505.254</ele>
        <time>2018-12-28T11:32:39Z</time>
      </trkpt>
      <trkpt lat="35.714780" lon="-117.398990">
        <ele>506.314</ele>
        <time>2018-12-28T11:32:59Z</time>
      </trkpt>
      <trkpt lat="35.715280" lon="-117.399160">
        <ele>507.128</ele>
        <time>2018-12-28T11:33:19Z</time>
      </trkpt>
      <trkpt lat="35.715590" lon="-117.399260">
        <ele>507.272</ele>
        <time>2018-12-28T11:33:39Z</time>
      </trkpt>
      <trkpt lat="35.715660" lon="-117.399290">
        <ele>507.221</ele>
        <time>2018-12-28T11:33:59Z</time>
      </trkpt>
      <trkpt lat="35.716420" lon="-117.399590">
        <ele>507.456</ele>
        <time>2018-12-28T11:34:19Z</time>
      </trkpt>
      <trkpt lat="35.717510" lon="-117.400010">
        <ele>505.431</ele>
        <time>2018-12-28T11:34:39Z</time>
      </trkpt>
      <trkpt lat="35.717630" lon="-117.400060">
        <ele>505.061</ele>
        <time>2018-12-28T11:34:59Z</time>
      </trkpt>
      <trkpt lat="35.718860" lon="-117.400520">
        <ele>502.207</ele>
        <time>2018-12-28T11:35:19Z</time>
      </trkpt>
      <trkpt lat="35.719210" lon="-117.400650">
        <ele>501.508</ele>
        <time>2018-12-28T11:35:39Z</time>
      </trkpt>
      <trkpt lat="35.719840" lon="-117.400880">
        <ele>501.366</ele>
        <time>2018-12-28T11:35:59Z</time>
      </trkpt>
      <trkpt lat="35.720160" lon="-117.401000">
        <ele>501.434</ele>
        <time>2018-12-28T11:36:19Z</time>
      </trkpt>
      <trkpt lat="35.720500" lon="-117.401120">
        <ele>501.989</ele>
        <time>2018-12-28T11:36:39Z</time>
      </trkpt>
      <trkpt lat="35.720660" lon="-117.401160">
        <ele>501.959</ele>
        <time>2018-12-28T11:36:59Z</time>
      </trkpt>
      <trkpt lat="35.720780" lon="-117.401190">
        <ele>501.923</ele>
        <time>2018-12-28T11:37:19Z</time>
      </trkpt>
      <trkpt lat="35.721020" lon="-117.401230">
        <ele>501.797</ele>
        <time>2018-12-28T11:37:39Z</time>
      </trkpt>
      <trkpt lat="35.721250" lon="-117.401250">
        <ele>501.666</ele>
        <time>2018-12-28T11:37:59Z</time>
      </trkpt>
      <trkpt lat="35.721920" lon="-117.401270">
        <ele>501.541</ele>
        <time>2018-12-28T11:38:19Z</time>
      </trkpt>
      <trkpt lat="35.722550" lon="-117.401270">
        <ele>501.359</ele>
        <time>2018-12-28T11:38:39Z</time>
      </trkpt>
      <trkpt lat="35.723760" lon="-117.401270">
        <ele>501.403</ele>
        <time>2018-12-28T11:38:59Z</time>
      </trkpt>
      <trkpt lat="35.724370" lon="-117.401290">
        <ele>501.823</ele>
        <time>2018-12-28T11:39:19Z</time>
      </trkpt>
      <trkpt lat="35.725350" lon="-117.401360">
        <ele>503.408</ele>
        <time>2018-12-28T11:39:39Z</time>
      </trkpt>
      <trkpt lat="35.727440" lon="-117.401540">
        <ele>505.718</ele>
        <time>2018-12-28T11:39:59Z</time>
      </trkpt>
      <trkpt lat="35.728250" lon="-117.401600">
        <ele>505.356</ele>
        <time>2018-12-28T11:40:19Z</time>
      </trkpt>
      <trkpt lat="35.728770" lon="-117.401640">
        <ele>504.831</ele>
        <time>2018-12-28T11:40:39Z</time>
      </trkpt>
      <trkpt lat="35.729560" lon="-117.401700">
        <ele>504.331</ele>
        <time>2018-12-28T11:40:59Z</time>
      </trkpt>
      <trkpt lat="35.730420" lon="-117.401740">
        <ele>504.055</ele>
        <time>2018-12-28T11:41:19Z</time>
      </trkpt>
      <trkpt lat="35.731020" lon="-117.401780">
        <ele>506.599</ele>
        <time>2018-12-28T11:41:39Z</time>
      </trkpt>
      <trkpt lat="35.731190" lon="-117.401780">
        <ele>506.758</ele>
        <time>2018-12-28T11:41:59Z</time>
      </trkpt>
      <trkpt lat="35.731630" lon="-117.401790">
        <ele>507.263</ele>
        <time>2018-12-28T11:42:19Z</time>
      </trkpt>
      <trkpt lat="35.731960" lon="-117.401770">
        <ele>507.479</ele>
        <time>2018-12-28T11:42:39Z</time>
      </trkpt>
      <trkpt lat="35.732170" lon="-117.401750">
        <ele>507.605</ele>
        <time>2018-12-28T11:42:59Z</time>
      </trkpt>
      <trkpt lat="35.732500" lon="-117.401690">
        <ele>508.125</ele>
        <time>2018-12-28T11:43:19Z</time>
      </trkpt>
      <trkpt lat="35.732760" lon="-117.401630">
        <ele>508.508</ele>
        <time>2018-12-28T11:43:39Z</time>
      </trkpt>
      <trkpt lat="35.733790" lon="-117.401340">
        <ele>509.660</ele>
        <time>2018-12-28T11:43:59Z</time>
      </trkpt>
      <trkpt lat="35.734700" lon="-117.401060">
        <ele>510.628</ele>
        <time>2018-12-28T11:44:19Z</time>
      </trkpt>
      <trkpt lat="35.735000" lon="-117.400960">
        <ele>510.743</ele>
        <time>2018-12-28T11:44:39Z</time>
      </trkpt>
      <trkpt lat="35.735350" lon="-117.400850">
        <ele>510.783</ele>
        <time>2018-12-28T11:44:59Z</time>
      </trkpt>
      <trkpt lat="35.735780" lon="-117.400700">
        <ele>510.437</ele>
        <time>2018-12-28T11:45:19Z</time>
      </trkpt>
      <trkpt lat="35.736140" lon="-117.400540">
        <ele>510.031</ele>
        <time>2018-12-28T11:45:39Z</time>
      </trkpt>
      <trkpt lat="35.736310" lon="-117.400470">
        <ele>509.870</ele>
        <time>2018-12-28T11:45:59Z</time>
      </trkpt>
      <trkpt lat="35.737290" lon="-117.399980">
        <ele>508.375</ele>
        <time>2018-12-28T11:46:19Z</time>
      </trkpt>
      <trkpt lat="35.737860" lon="-117.399720">
        <ele>506.719</ele>
        <time>2018-12-28T11:46:39Z</time>
      </trkpt>
      <trkpt lat="35.738420" lon="-117.399460">
        <ele>505.809</ele>
        <time>2018-12-28T11:46:59Z</time>
      </trkpt>
      <trkpt lat="35.738690" lon="-117.399320">
        <ele>505.219</ele>
        <time>2018-12-28T11:47:19Z</time>
      </trkpt>
      <trkpt lat="35.739270" lon="-117.399030">
        <ele>504.308</ele>
        <time>2018-12-28T11:47:39Z</time>
      </trkpt>
      <trkpt lat="35.740010" lon="-117.398660">
        <ele>503.294</ele>
        <time>2018-12-28T11:47:59Z</time>
      </trkpt>
      <trkpt lat="35.740520" lon="-117.398400">
        <ele>503.782</ele>
        <time>2018-12-28T11:48:19Z</time>
      </trkpt>
      <trkpt lat="35.741520" lon="-117.397900">
        <ele>505.697</ele>
        <time>2018-12-28T11:48:39Z</time>
      </trkpt>
      <trkpt lat="35.742150" lon="-117.397580">
        <ele>507.087</ele>
        <time>2018-12-28T11:48:59Z</time>
      </trkpt>
      <trkpt lat="35.742240" lon="-117.397540">
        <ele>507.261</ele>
        <time>2018-12-28T11:49:19Z</time>
      </trkpt>
      <trkpt lat="35.743150" lon="-117.397070">
        <ele>507.585</ele>
        <time>2018-12-28T11:49:39Z</time>
      </trkpt>
      <trkpt lat="35.743350" lon="-117.396970">
        <ele>507.484</ele>
        <time>2018-12-28T11:49:59Z</time>
      </trkpt>
      <trkpt lat="35.744120" lon="-117.396570">
        <ele>505.979</ele>
        <time>2018-12-28T11:50:19Z</time>
      </trkpt>
      <trkpt lat="35.744660" lon="-117.396290">
        <ele>505.459</ele>
        <time>2018-12-28T11:50:39Z</time>
      </trkpt>
      <trkpt lat="35.744860" lon="-117.396190">
        <ele>505.203</ele>
        <time>2018-12-28T11:50:59Z</time>
      </trkpt>
      <trkpt lat="35.745900" lon="-117.395660">
        <ele>504.423</ele>
        <time>2018-12-28T11:51:19Z</time>
      </trkpt>
      <trkpt lat="35.746110" lon="-117.395540">
        <ele>504.108</ele>
        <time>2018-12-28T11:51:39Z</time>
      </trkpt>
      <trkpt lat="35.746200" lon="-117.395500">
        <ele>504.088</ele>
        <time>2018-12-28T11:51:59Z</time>
      </trkpt>
      <trkpt lat="35.746290" lon="-117.395440">
        <ele>503.826</ele>
        <time>2018-12-28T11:52:19Z</time>
      </trkpt>
      <trkpt lat="35.746390" lon="-117.395380">
        <ele>503.741</ele>
        <time>2018-12-28T11:52:39Z</time>
      </trkpt>
      <trkpt lat="35.746510" lon="-117.395300">
        <ele>503.661</ele>
        <time>2018-12-28T11:52:59Z</time>
      </trkpt>
      <trkpt lat="35.746670" lon="-117.395180">
        <ele>503.645</ele>
        <time>2018-12-28T11:53:19Z</time>
      </trkpt>
      <trkpt lat="35.746910" lon="-117.394980">
        <ele>503.569</ele>
        <time>2018-12-28T11:53:39Z</time>
      </trkpt>
      <trkpt lat="35.746980" lon="-117.394900">
        <ele>503.538</ele>
        <time>2018-12-28T11:53:59Z</time>
      </trkpt>
      <trkpt lat="35.747120" lon="-117.394760">
        <ele>503.533</ele>
        <time>2018-12-28T11:54:19Z</time>
      </trkpt>
      <trkpt lat="35.747420" lon="-117.394460">
        <ele>503.698</ele>
        <time>2018-12-28T11:54:39Z</time>
      </trkpt>
      <trkpt lat="35.747460" lon="-117.394410">
        <ele>503.615</ele>
        <time>2018-12-28T11:54:59Z</time>
      </trkpt>
      <trkpt lat="35.747560" lon="-117.394300">
        <ele>503.626</ele>
        <time>2018-12-28T11:55:19Z</time>
      </trkpt>
      <trkpt lat="35.747880" lon="-117.393950">
        <ele>503.308</ele>
        <time>2018-12-28T11:55:39Z</time>
      </trkpt>
      <trkpt lat="35.748120" lon="-117.393650">
        <ele>503.012</ele>
        <time>2018-12-28T11:55:59Z</time>
      </trkpt>
      <trkpt lat="35.748350" lon="-117.393320">
        <ele>502.890</ele>
        <time>2018-12-28T11:56:19Z</time>
      </trkpt>
      <trkpt lat="35.748560" lon="-117.393000">
        <ele>502.935</ele>
        <time>2018-12-28T11:56:39Z</time>
      </trkpt>
      <trkpt lat="35.748590" lon="-117.392930">
        <ele>503.045</ele>
        <time>2018-12-28T11:56:59Z</time>
      </trkpt>
      <trkpt lat="35.748720" lon="-117.392690">
        <ele>503.189</ele>
        <time>2018-12-28T11:57:19Z</time>
      </trkpt>
      <trkpt lat="35.748830" lon="-117.392400">
        <ele>502.873</ele>
        <time>2018-12-28T11:57:39Z</time>
      </trkpt>
      <trkpt lat="35.748860" lon="-117.392250">
        <ele>502.762</ele>
        <time>2018-12-28T11:57:59Z</time>
      </trkpt>
      <trkpt lat="35.748880" lon="-117.392110">
        <ele>502.677</ele>
        <time>2018-12-28T11:58:19Z</time>
      </trkpt>
      <trkpt lat="35.748890" lon="-117.391820">
        <ele>502.426</ele>
        <time>2018-12-28T11:58:39Z</time>
      </trkpt>
      <trkpt lat="35.748890" lon="-117.391790">
        <ele>502.447</ele>
        <time>2018-12-28T11:58:59Z</time>
      </trkpt>
      <trkpt lat="35.748880" lon="-117.391540">
        <ele>502.311</ele>
        <time>2018-12-28T11:59:19Z</time>
      </trkpt>
      <trkpt lat="35.748880" lon="-117.391040">
        <ele>502.008</ele>
        <time>2018-12-28T11:59:39Z</time>
      </trkpt>
      <trkpt lat="35.748870" lon="-117.390760">
        <ele>501.815</ele>
        <time>2018-12-28T11:59:59Z</time>
      </trkpt>
      <trkpt lat="35.748870" lon="-117.390640">
        <ele>501.793</ele>
        <time>2018-12-28T12:00:19Z</time>
      </trkpt>
      <trkpt lat="35.748880" lon="-117.390510">
        <ele>501.618</ele>
        <time>2018-12-28T12:00:39Z</time>
      </trkpt>
      <trkpt lat="35.748890" lon="-117.390370">
        <ele>501.588</ele>
        <time>2018-12-28T12:00:59Z</time>
      </trkpt>
      <trkpt lat="35.748900" lon="-117.390270">
        <ele>501.572</ele>
        <time>2018-12-28T12:01:19Z</time>
      </trkpt>
      <trkpt lat="35.748920" lon="-117.390180">
        <ele>501.466</ele>
        <time>2018-12-28T12:01:39Z</time>
      </trkpt>
      <trkpt lat="35.748950" lon="-117.390060">
        <ele>501.315</ele>
        <time>2018-12-28T12:01:59Z</time>
      </trkpt>
      <trkpt lat="35.749000" lon="-117.389920">
        <ele>501.310</ele>
        <time>2018-12-28T12:02:19Z</time>
      </trkpt>
      <trkpt lat="35.749040" lon="-117.389800">
        <ele>501.269</ele>
        <time>2018-12-28T12:02:39Z</time>
      </trkpt>
      <trkpt lat="35.749090" lon="-117.389720">
        <ele>501.104</ele>
        <time>2018-12-28T12:02:59Z</time>
      </trkpt>
      <trkpt lat="35.749150" lon="-117.389620">
        <ele>501.124</ele>
        <time>2018-12-28T12:03:19Z</time>
      </trkpt>
      <trkpt lat="35.749220" lon="-117.389520">
        <ele>501.008</ele>
        <time>2018-12-28T12:03:39Z</time>
      </trkpt>
      <trkpt lat="35.749310" lon="-117.389400">
        <ele>501.079</ele>
        <time>2018-12-28T12:03:59Z</time>
      </trkpt>
      <trkpt lat="35.749440" lon="-117.389250">
        <ele>501.017</ele>
        <time>2018-12-28T12:04:19Z</time>
      </trkpt>
      <trkpt lat="35.750050" lon="-117.388560">
        <ele>501.272</ele>
        <time>2018-12-28T12:04:39Z</time>
      </trkpt>
      <trkpt lat="35.750310" lon="-117.388260">
        <ele>500.412</ele>
        <time>2018-12-28T12:04:59Z</time>
      </trkpt>
      <trkpt lat="35.750790" lon="-117.387720">
        <ele>499.456</ele>
        <time>2018-12-28T12:05:19Z</time>
      </trkpt>
      <trkpt lat="35.751140" lon="-117.387330">
        <ele>499.330</ele>
        <time>2018-12-28T12:05:39Z</time>
      </trkpt>
      <trkpt lat="35.751640" lon="-117.386760">
        <ele>500.139</ele>
        <time>2018-12-28T12:05:59Z</time>
      </trkpt>
      <trkpt lat="35.752260" lon="-117.386050">
        <ele>501.064</ele>
        <time>2018-12-28T12:06:19Z</time>
      </trkpt>
      <trkpt lat="35.753190" lon="-117.384980">
        <ele>502.518</ele>
        <time>2018-12-28T12:06:39Z</time>
      </trkpt>
      <trkpt lat="35.753680" lon="-117.384430">
        <ele>503.298</ele>
        <time>2018-12-28T12:06:59Z</time>
      </trkpt>
      <trkpt lat="35.753990" lon="-117.384060">
        <ele>503.517</ele>
        <time>2018-12-28T12:07:19Z</time>
      </trkpt>
      <trkpt lat="35.754250" lon="-117.383780">
        <ele>503.908</ele>
        <time>2018-12-28T12:07:39Z</time>
      </trkpt>
      <trkpt lat="35.754340" lon="-117.383670">
        <ele>504.034</ele>
        <time>2018-12-28T12:07:59Z</time>
      </trkpt>
      <trkpt lat="35.754420" lon="-117.383580">
        <ele>504.022</ele>
        <time>2018-12-28T12:08:19Z</time>
      </trkpt>
      <trkpt lat="35.754550" lon="-117.383420">
        <ele>504.287</ele>
        <time>2018-12-28T12:08:39Z</time>
      </trkpt>
      <trkpt lat="35.754610" lon="-117.383320">
        <ele>504.227</ele>
        <time>2018-12-28T12:08:59Z</time>
      </trkpt>
      <trkpt lat="35.754800" lon="-117.383040">
        <ele>504.461</ele>
        <time>2018-12-28T12:09:19Z</time>
      </trkpt>
      <trkpt lat="35.754990" lon="-117.382720">
        <ele>504.575</ele>
        <time>2018-12-28T12:09:39Z</time>
      </trkpt>
      <trkpt lat="35.755180" lon="-117.382390">
        <ele>504.524</ele>
        <time>2018-12-28T12:09:59Z</time>
      </trkpt>
      <trkpt lat="35.756370" lon="-117.380240">
        <ele>503.879</ele>
        <time>2018-12-28T12:10:19Z</time>
      </trkpt>
      <trkpt lat="35.756450" lon="-117.380100">
        <ele>503.747</ele>
        <time>2018-12-28T12:10:39Z</time>
      </trkpt>
      <trkpt lat="35.756710" lon="-117.379620">
        <ele>503.629</ele>
        <time>2018-12-28T12:10:59Z</time>
      </trkpt>
      <trkpt lat="35.756990" lon="-117.379130">
        <ele>503.521</ele>
        <time>2018-12-28T12:11:19Z</time>
      </trkpt>
      <trkpt lat="35.757550" lon="-117.378090">
        <ele>503.108</ele>
        <time>2018-12-28T12:11:39Z</time>
      </trkpt>
      <trkpt lat="35.757620" lon="-117.377910">
        <ele>503.047</ele>
        <time>2018-12-28T12:11:59Z</time>
      </trkpt>
      <trkpt lat="35.757660" lon="-117.377810">
        <ele>502.925</ele>
        <time>2018-12-28T12:12:19Z</time>
      </trkpt>
      <trkpt lat="35.757730" lon="-117.377630">
        <ele>502.790</ele>
        <time>2018-12-28T12:12:39Z</time>
      </trkpt>
      <trkpt lat="35.757800" lon="-117.377390">
        <ele>502.330</ele>
        <time>2018-12-28T12:12:59Z</time>
      </trkpt>
      <trkpt lat="35.757900" lon="-117.377000">
        <ele>501.614</ele>
        <time>2018-12-28T12:13:19Z</time>
      </trkpt>
      <trkpt lat="35.757940" lon="-117.376810">
        <ele>501.478</ele>
        <time>2018-12-28T12:13:39Z</time>
      </trkpt>
      <trkpt lat="35.758050" lon="-117.376230">
        <ele>500.987</ele>
        <time>2018-12-28T12:13:59Z</time>
      </trkpt>
      <trkpt lat="35.758120" lon="-117.375810">
        <ele>500.872</ele>
        <time>2018-12-28T12:14:19Z</time>
      </trkpt>
      <trkpt lat="35.758190" lon="-117.375390">
        <ele>500.977</ele>
        <time>2018-12-28T12:14:39Z</time>
      </trkpt>
      <trkpt lat="35.758240" lon="-117.375090">
        <ele>500.861</ele>
        <time>2018-12-28T12:14:59Z</time>
      </trkpt>
      <trkpt lat="35.758300" lon="-117.374860">
        <ele>500.827</ele>
        <time>2018-12-28T12:15:19Z</time>
      </trkpt>
      <trkpt lat="35.758340" lon="-117.374740">
        <ele>500.608</ele>
        <time>2018-12-28T12:15:39Z</time>
      </trkpt>
      <trkpt lat="35.758350" lon="-117.374690">
        <ele>500.690</ele>
        <time>2018-12-28T12:15:59Z</time>
      </trkpt>
      <trkpt lat="35.758390" lon="-117.374580">
        <ele>500.468</ele>
        <time>2018-12-28T12:16:19Z</time>
      </trkpt>
      <trkpt lat="35.758410" lon="-117.374530">
        <ele>500.333</ele>
        <time>2018-12-28T12:16:39Z</time>
      </trkpt>
      <trkpt lat="35.758500" lon="-117.374310">
        <ele>499.993</ele>
        <time>2018-12-28T12:16:59Z</time>
      </trkpt>
      <trkpt lat="35.758600" lon="-117.374130">
        <ele>499.637</ele>
        <time>2018-12-28T12:17:19Z</time>
      </trkpt>
      <trkpt lat="35.758670" lon="-117.374010">
        <ele>499.451</ele>
        <time>2018-12-28T12:17:39Z</time>
      </trkpt>
      <trkpt lat="35.758680" lon="-117.373970">
        <ele>499.370</ele>
        <time>2018-12-28T12:17:59Z</time>
      </trkpt>
      <trkpt lat="35.758840" lon="-117.373750">
        <ele>498.935</ele>
        <time>2018-12-28T12:18:19Z</time>
      </trkpt>
      <trkpt lat="35.758980" lon="-117.373590">
        <ele>498.646</ele>
        <time>2018-12-28T12:18:39Z</time>
      </trkpt>
      <trkpt lat="35.759080" lon="-117.373500">
        <ele>498.588</ele>
        <time>2018-12-28T12:18:59Z</time>
      </trkpt>
      <trkpt lat="35.759290" lon="-117.373310">
        <ele>498.316</ele>
        <time>2018-12-28T12:19:19Z</time>
      </trkpt>
      <trkpt lat="35.759450" lon="-117.373200">
        <ele>498.108</ele>
        <time>2018-12-28T12:19:39Z</time>
      </trkpt>
      <trkpt lat="35.759640" lon="-117.373100">
        <ele>498.147</ele>
        <time>2018-12-28T12:19:59Z</time>
      </trkpt>
      <trkpt lat="35.759840" lon="-117.373020">
        <ele>498.065</ele>
        <time>2018-12-28T12:20:19Z</time>
      </trkpt>
      <trkpt lat="35.760630" lon="-117.372700">
        <ele>497.920</ele>
        <time>2018-12-28T12:20:39Z</time>
      </trkpt>
      <trkpt lat="35.761420" lon="-117.372410">
        <ele>497.810</ele>
        <time>2018-12-28T12:20:59Z</time>
      </trkpt>
      <trkpt lat="35.762100" lon="-117.372160">
        <ele>495.864</ele>
        <time>2018-12-28T12:21:19Z</time>
      </trkpt>
      <trkpt lat="35.762640" lon="-117.371960">
        <ele>495.578</ele>
        <time>2018-12-28T12:21:39Z</time>
      </trkpt>
      <trkpt lat="35.763500" lon="-117.371650">
        <ele>499.147</ele>
        <time>2018-12-28T12:21:59Z</time>
      </trkpt>
      <trkpt lat="35.764170" lon="-117.371400">
        <ele>500.442</ele>
        <time>2018-12-28T12:22:19Z</time>
      </trkpt>
      <trkpt lat="35.765910" lon="-117.370760">
        <ele>501.331</ele>
        <time>2018-12-28T12:22:39Z</time>
      </trkpt>
      <trkpt lat="35.766570" lon="-117.370510">
        <ele>501.361</ele>
        <time>2018-12-28T12:22:59Z</time>
      </trkpt>
      <trkpt lat="35.767270" lon="-117.370250">
        <ele>501.107</ele>
        <time>2018-12-28T12:23:19Z</time>
      </trkpt>
      <trkpt lat="35.767680" lon="-117.370100">
        <ele>501.108</ele>
        <time>2018-12-28T12:23:39Z</time>
      </trkpt>
      <trkpt lat="35.768070" lon="-117.369960">
        <ele>501.136</ele>
        <time>2018-12-28T12:23:59Z</time>
      </trkpt>
      <trkpt lat="35.768450" lon="-117.369820">
        <ele>501.034</ele>
        <time>2018-12-28T12:24:19Z</time>
      </trkpt>
      <trkpt lat="35.768850" lon="-117.369670">
        <ele>500.919</ele>
        <time>2018-12-28T12:24:39Z</time>
      </trkpt>
      <trkpt lat="35.773110" lon="-117.368120">
        <ele>499.349</ele>
        <time>2018-12-28T12:24:59Z</time>
      </trkpt>
      <trkpt lat="35.773690" lon="-117.367910">
        <ele>499.253</ele>
        <time>2018-12-28T12:25:19Z</time>
      </trkpt>
      <trkpt lat="35.774890" lon="-117.367470">
        <ele>498.997</ele>
        <time>2018-12-28T12:25:39Z</time>
      </trkpt>
      <trkpt lat="35.778090" lon="-117.366300">
        <ele>498.316</ele>
        <time>2018-12-28T12:25:59Z</time>
      </trkpt>
      <trkpt lat="35.778480" lon="-117.366160">
        <ele>498.461</ele>
        <time>2018-12-28T12:26:19Z</time>
      </trkpt>
      <trkpt lat="35.779720" lon="-117.365710">
        <ele>499.091</ele>
        <time>2018-12-28T12:26:39Z</time>
      </trkpt>
      <trkpt lat="35.780940" lon="-117.365260">
        <ele>500.081</ele>
        <time>2018-12-28T12:26:59Z</time>
      </trkpt>
      <trkpt lat="35.781010" lon="-117.365230">
        <ele>500.119</ele>
        <time>2018-12-28T12:27:19Z</time>
      </trkpt>
      <trkpt lat="35.781920" lon="-117.364900">
        <ele>502.908</ele>
        <time>2018-12-28T12:27:39Z</time>
      </trkpt>
      <trkpt lat="35.782470" lon="-117.364700">
        <ele>504.442</ele>
        <time>2018-12-28T12:27:59Z</time>
      </trkpt>
      <trkpt lat="35.782700" lon="-117.364610">
        <ele>504.630</ele>
        <time>2018-12-28T12:28:19Z</time>
      </trkpt>
      <trkpt lat="35.783000" lon="-117.364470">
        <ele>504.955</ele>
        <time>2018-12-28T12:28:39Z</time>
      </trkpt>
      <trkpt lat="35.783240" lon="-117.364340">
        <ele>504.945</ele>
        <time>2018-12-28T12:28:59Z</time>
      </trkpt>
      <trkpt lat="35.783380" lon="-117.364260">
        <ele>504.979</ele>
        <time>2018-12-28T12:29:19Z</time>
      </trkpt>
      <trkpt lat="35.783540" lon="-117.364150">
        <ele>504.933</ele>
        <time>2018-12-28T12:29:39Z</time>
      </trkpt>
      <trkpt lat="35.783850" lon="-117.363930">
        <ele>504.842</ele>
        <time>2018-12-28T12:29:59Z</time>
      </trkpt>
      <trkpt lat="35.784540" lon="-117.363330">
        <ele>503.527</ele>
        <time>2018-12-28T12:30:19Z</time>
      </trkpt>
      <trkpt lat="35.785210" lon="-117.362720">
        <ele>504.144</ele>
        <time>2018-12-28T12:30:39Z</time>
      </trkpt>
      <trkpt lat="35.785280" lon="-117.362650">
        <ele>504.105</ele>
        <time>2018-12-28T12:30:59Z</time>
      </trkpt>
      <trkpt lat="35.785870" lon="-117.362140">
        <ele>504.315</ele>
        <time>2018-12-28T12:31:19Z</time>
      </trkpt>
      <trkpt lat="35.786560" lon="-117.361570">
        <ele>504.608</ele>
        <time>2018-12-28T12:31:39Z</time>
      </trkpt>
      <trkpt lat="35.787110" lon="-117.361130">
        <ele>505.197</ele>
        <time>2018-12-28T12:31:59Z</time>
      </trkpt>
      <trkpt lat="35.787460" lon="-117.360850">
        <ele>505.455</ele>
        <time>2018-12-28T12:32:19Z</time>
      </trkpt>
      <trkpt lat="35.787660" lon="-117.360710">
        <ele>505.560</ele>
        <time>2018-12-28T12:32:39Z</time>
      </trkpt>
      <trkpt lat="35.787860" lon="-117.360570">
        <ele>505.620</ele>
        <time>2018-12-28T12:32:59Z</time>
      </trkpt>
      <trkpt lat="35.788560" lon="-117.360060">
        <ele>505.974</ele>
        <time>2018-12-28T12:33:19Z</time>
      </trkpt>
      <trkpt lat="35.790640" lon="-117.358630">
        <ele>506.538</ele>
        <time>2018-12-28T12:33:39Z</time>
      </trkpt>
      <trkpt lat="35.791040" lon="-117.358330">
        <ele>506.537</ele>
        <time>2018-12-28T12:33:59Z</time>
      </trkpt>
      <trkpt lat="35.792650" lon="-117.357130">
        <ele>506.712</ele>
        <time>2018-12-28T12:34:19Z</time>
      </trkpt>
      <trkpt lat="35.794740" lon="-117.355620">
        <ele>506.676</ele>
        <time>2018-12-28T12:34:39Z</time>
      </trkpt>
      <trkpt lat="35.794950" lon="-117.355470">
        <ele>506.690</ele>
        <time>2018-12-28T12:34:59Z</time>
      </trkpt>
      <trkpt lat="35.795140" lon="-117.355340">
        <ele>506.619</ele>
        <time>2018-12-28T12:35:19Z</time>
      </trkpt>
      <trkpt lat="35.795270" lon="-117.355230">
        <ele>506.608</ele>
        <time>2018-12-28T12:35:39Z</time>
      </trkpt>
      <trkpt lat="35.795420" lon="-117.355110">
        <ele>506.670</ele>
        <time>2018-12-28T12:35:59Z</time>
      </trkpt>
      <trkpt lat="35.795418" lon="-117.355115">
        <ele>506.668</ele>
        <time>2018-12-28T12:36:19Z</time>
      </trkpt>
      <trkpt lat="35.795630" lon="-117.354950">
        <ele>506.753</ele>
        <time>2018-12-28T12:36:39Z</time>
      </trkpt>
      <trkpt lat="35.797160" lon="-117.353840">
        <ele>507.243</ele>
        <time>2018-12-28T12:36:59Z</time>
      </trkpt>
      <trkpt lat="35.798120" lon="-117.353160">
        <ele>507.747</ele>
        <time>2018-12-28T12:37:19Z</time>
      </trkpt>
      <trkpt lat="35.798940" lon="-117.352570">
        <ele>507.821</ele>
        <time>2018-12-28T12:37:39Z</time>
      </trkpt>
      <trkpt lat="35.799750" lon="-117.351980">
        <ele>507.840</ele>
        <time>2018-12-28T12:37:59Z</time>
      </trkpt>
      <trkpt lat="35.802500" lon="-117.350020">
        <ele>509.085</ele>
        <time>2018-12-28T12:38:19Z</time>
      </trkpt>
      <trkpt lat="35.805280" lon="-117.348010">
        <ele>508.778</ele>
        <time>2018-12-28T12:38:39Z</time>
      </trkpt>
      <trkpt lat="35.805980" lon="-117.347520">
        <ele>508.533</ele>
        <time>2018-12-28T12:38:59Z</time>
      </trkpt>
      <trkpt lat="35.807800" lon="-117.346180">
        <ele>508.126</ele>
        <time>2018-12-28T12:39:19Z</time>
      </trkpt>
      <trkpt lat="35.808040" lon="-117.346020">
        <ele>508.108</ele>
        <time>2018-12-28T12:39:39Z</time>
      </trkpt>
      <trkpt lat="35.808430" lon="-117.345740">
        <ele>508.250</ele>
        <time>2018-12-28T12:39:59Z</time>
      </trkpt>
      <trkpt lat="35.809030" lon="-117.345300">
        <ele>508.888</ele>
        <time>2018-12-28T12:40:19Z</time>
      </trkpt>
      <trkpt lat="35.809720" lon="-117.344820">
        <ele>509.423</ele>
        <time>2018-12-28T12:40:39Z</time>
      </trkpt>
      <trkpt lat="35.810070" lon="-117.344590">
        <ele>509.723</ele>
        <time>2018-12-28T12:40:59Z</time>
      </trkpt>
      <trkpt lat="35.810330" lon="-117.344430">
        <ele>510.067</ele>
        <time>2018-12-28T12:41:19Z</time>
      </trkpt>
      <trkpt lat="35.810710" lon="-117.344220">
        <ele>510.331</ele>
        <time>2018-12-28T12:41:39Z</time>
      </trkpt>
      <trkpt lat="35.811320" lon="-117.343940">
        <ele>510.980</ele>
        <time>2018-12-28T12:41:59Z</time>
      </trkpt>
      <trkpt lat="35.811740" lon="-117.343780">
        <ele>511.395</ele>
        <time>2018-12-28T12:42:19Z</time>
      </trkpt>
      <trkpt lat="35.812120" lon="-117.343650">
        <ele>511.613</ele>
        <time>2018-12-28T12:42:39Z</time>
      </trkpt>
      <trkpt lat="35.813330" lon="-117.343300">
        <ele>512.643</ele>
        <time>2018-12-28T12:42:59Z</time>
      </trkpt>
      <trkpt lat="35.815120" lon="-117.342780">
        <ele>513.907</ele>
        <time>2018-12-28T12:43:19Z</time>
      </trkpt>
      <trkpt lat="35.818010" lon="-117.341920">
        <ele>515.608</ele>
        <time>2018-12-28T12:43:39Z</time>
      </trkpt>
      <trkpt lat="35.824910" lon="-117.339880">
        <ele>525.214</ele>
        <time>2018-12-28T12:43:59Z</time>
      </trkpt>
      <trkpt lat="35.826320" lon="-117.339470">
        <ele>528.632</ele>
        <time>2018-12-28T12:44:19Z</time>
      </trkpt>
      <trkpt lat="35.828820" lon="-117.338730">
        <ele>533.827</ele>
        <time>2018-12-28T12:44:39Z</time>
      </trkpt>
      <trkpt lat="35.831530" lon="-117.337920">
        <ele>539.757</ele>
        <time>2018-12-28T12:44:59Z</time>
      </trkpt>
      <trkpt lat="35.832780" lon="-117.337550">
        <ele>542.821</ele>
        <time>2018-12-28T12:45:19Z</time>
      </trkpt>
      <trkpt lat="35.833050" lon="-117.337480">
        <ele>543.555</ele>
        <time>2018-12-28T12:45:39Z</time>
      </trkpt>
      <trkpt lat="35.833430" lon="-117.337410">
        <ele>544.684</ele>
        <time>2018-12-28T12:45:59Z</time>
      </trkpt>
      <trkpt lat="35.833750" lon="-117.337350">
        <ele>545.559</ele>
        <time>2018-12-28T12:46:19Z</time>
      </trkpt>
      <trkpt lat="35.834090" lon="-117.337300">
        <ele>546.569</ele>
        <time>2018-12-28T12:46:39Z</time>
      </trkpt>
      <trkpt lat="35.834320" lon="-117.337270">
        <ele>547.104</ele>
        <time>2018-12-28T12:46:59Z</time>
      </trkpt>
      <trkpt lat="35.835160" lon="-117.337190">
        <ele>549.124</ele>
        <time>2018-12-28T12:47:19Z</time>
      </trkpt>
      <trkpt lat="35.835870" lon="-117.337130">
        <ele>550.908</ele>
        <time>2018-12-28T12:47:39Z</time>
      </trkpt>
      <trkpt lat="35.836880" lon="-117.337030">
        <ele>554.139</ele>
        <time>2018-12-28T12:47:59Z</time>
      </trkpt>
      <trkpt lat="35.837890" lon="-117.336940">
        <ele>556.557</ele>
        <time>2018-12-28T12:48:19Z</time>
      </trkpt>
      <trkpt lat="35.838700" lon="-117.336880">
        <ele>559.192</ele>
        <time>2018-12-28T12:48:39Z</time>
      </trkpt>
      <trkpt lat="35.839710" lon="-117.336790">
        <ele>562.212</ele>
        <time>2018-12-28T12:48:59Z</time>
      </trkpt>
      <trkpt lat="35.840900" lon="-117.336680">
        <ele>566.296</ele>
        <time>2018-12-28T12:49:19Z</time>
      </trkpt>
      <trkpt lat="35.842400" lon="-117.336540">
        <ele>569.860</ele>
        <time>2018-12-28T12:49:39Z</time>
      </trkpt>
      <trkpt lat="35.843110" lon="-117.336480">
        <ele>572.649</ele>
        <time>2018-12-28T12:49:59Z</time>
      </trkpt>
      <trkpt lat="35.844560" lon="-117.336360">
        <ele>577.264</ele>
        <time>2018-12-28T12:50:19Z</time>
      </trkpt>
      <trkpt lat="35.845040" lon="-117.336300">
        <ele>579.474</ele>
        <time>2018-12-28T12:50:39Z</time>
      </trkpt>
      <trkpt lat="35.846590" lon="-117.336160">
        <ele>583.256</ele>
        <time>2018-12-28T12:50:59Z</time>
      </trkpt>
      <trkpt lat="35.854130" lon="-117.335500">
        <ele>603.821</ele>
        <time>2018-12-28T12:51:19Z</time>
      </trkpt>
      <trkpt lat="35.856040" lon="-117.335330">
        <ele>609.608</ele>
        <time>2018-12-28T12:51:39Z</time>
      </trkpt>
      <trkpt lat="35.857470" lon="-117.335200">
        <ele>614.730</ele>
        <time>2018-12-28T12:51:59Z</time>
      </trkpt>
      <trkpt lat="35.859070" lon="-117.335060">
        <ele>619.648</ele>
        <time>2018-12-28T12:52:19Z</time>
      </trkpt>
      <trkpt lat="35.860310" lon="-117.334950">
        <ele>623.053</ele>
        <time>2018-12-28T12:52:39Z</time>
      </trkpt>
      <trkpt lat="35.860590" lon="-117.334920">
        <ele>623.963</ele>
        <time>2018-12-28T12:52:59Z</time>
      </trkpt>
      <trkpt lat="35.861150" lon="-117.334870">
        <ele>625.857</ele>
        <time>2018-12-28T12:53:19Z</time>
      </trkpt>
      <trkpt lat="35.862000" lon="-117.334790">
        <ele>628.261</ele>
        <time>2018-12-28T12:53:39Z</time>
      </trkpt>
      <trkpt lat="35.872480" lon="-117.333870">
        <ele>663.650</ele>
        <time>2018-12-28T12:53:59Z</time>
      </trkpt>
      <trkpt lat="35.873710" lon="-117.333760">
        <ele>667.295</ele>
        <time>2018-12-28T12:54:19Z</time>
      </trkpt>
      <trkpt lat="35.875600" lon="-117.333590">
        <ele>672.888</ele>
        <time>2018-12-28T12:54:39Z</time>
      </trkpt>
      <trkpt lat="35.877440" lon="-117.333430">
        <ele>678.124</ele>
        <time>2018-12-28T12:54:59Z</time>
      </trkpt>
      <trkpt lat="35.878110" lon="-117.333370">
        <ele>680.126</ele>
        <time>2018-12-28T12:55:19Z</time>
      </trkpt>
      <trkpt lat="35.882040" lon="-117.333020">
        <ele>690.908</ele>
        <time>2018-12-28T12:55:39Z</time>
      </trkpt>
      <trkpt lat="35.884910" lon="-117.332770">
        <ele>698.231</ele>
        <time>2018-12-28T12:55:59Z</time>
      </trkpt>
      <trkpt lat="35.885400" lon="-117.332720">
        <ele>699.129</ele>
        <time>2018-12-28T12:56:19Z</time>
      </trkpt>
      <trkpt lat="35.886650" lon="-117.332620">
        <ele>701.794</ele>
        <time>2018-12-28T12:56:39Z</time>
      </trkpt>
      <trkpt lat="35.892040" lon="-117.332240">
        <ele>709.584</ele>
        <time>2018-12-28T12:56:59Z</time>
      </trkpt>
      <trkpt lat="35.893160" lon="-117.332140">
        <ele>710.178</ele>
        <time>2018-12-28T12:57:19Z</time>
      </trkpt>
      <trkpt lat="35.900220" lon="-117.331510">
        <ele>709.442</ele>
        <time>2018-12-28T12:57:39Z</time>
      </trkpt>
      <trkpt lat="35.901500" lon="-117.331400">
        <ele>708.311</ele>
        <time>2018-12-28T12:57:59Z</time>
      </trkpt>
      <trkpt lat="35.902530" lon="-117.331310">
        <ele>707.326</ele>
        <time>2018-12-28T12:58:19Z</time>
      </trkpt>
      <trkpt lat="35.903440" lon="-117.331220">
        <ele>707.048</ele>
        <time>2018-12-28T12:58:39Z</time>
      </trkpt>
      <trkpt lat="35.903860" lon="-117.331190">
        <ele>706.961</ele>
        <time>2018-12-28T12:58:59Z</time>
      </trkpt>
      <trkpt lat="35.906010" lon="-117.331000">
        <ele>706.217</ele>
        <time>2018-12-28T12:59:19Z</time>
      </trkpt>
      <trkpt lat="35.906700" lon="-117.330930">
        <ele>707.808</ele>
        <time>2018-12-28T12:59:39Z</time>
      </trkpt>
      <trkpt lat="35.907090" lon="-117.330900">
        <ele>708.777</ele>
        <time>2018-12-28T12:59:59Z</time>
      </trkpt>
      <trkpt lat="35.908380" lon="-117.330790">
        <ele>711.695</ele>
        <time>2018-12-28T13:00:19Z</time>
      </trkpt>
      <trkpt lat="35.909880" lon="-117.330660">
        <ele>714.630</ele>
        <time>2018-12-28T13:00:39Z</time>
      </trkpt>
      <trkpt lat="35.912760" lon="-117.330390">
        <ele>717.070</ele>
        <time>2018-12-28T13:00:59Z</time>
      </trkpt>
      <trkpt lat="35.913650" lon="-117.330310">
        <ele>717.974</ele>
        <time>2018-12-28T13:01:19Z</time>
      </trkpt>
      <trkpt lat="35.914090" lon="-117.330270">
        <ele>718.458</ele>
        <time>2018-12-28T13:01:39Z</time>
      </trkpt>
      <trkpt lat="35.916060" lon="-117.330110">
        <ele>720.887</ele>
        <time>2018-12-28T13:01:59Z</time>
      </trkpt>
      <trkpt lat="35.916720" lon="-117.330040">
        <ele>721.342</ele>
        <time>2018-12-28T13:02:19Z</time>
      </trkpt>
      <trkpt lat="35.917250" lon="-117.329990">
        <ele>721.787</ele>
        <time>2018-12-28T13:02:39Z</time>
      </trkpt>
      <trkpt lat="35.918080" lon="-117.329920">
        <ele>723.642</ele>
        <time>2018-12-28T13:02:59Z</time>
      </trkpt>
      <trkpt lat="35.919160" lon="-117.329820">
        <ele>725.426</ele>
        <time>2018-12-28T13:03:19Z</time>
      </trkpt>
      <trkpt lat="35.919660" lon="-117.329770">
        <ele>726.208</ele>
        <time>2018-12-28T13:03:39Z</time>
      </trkpt>
      <trkpt lat="35.919980" lon="-117.329740">
        <ele>726.621</ele>
        <time>2018-12-28T13:03:59Z</time>
      </trkpt>
      <trkpt lat="35.920390" lon="-117.329720">
        <ele>727.299</ele>
        <time>2018-12-28T13:04:19Z</time>
      </trkpt>
      <trkpt lat="35.920540" lon="-117.329720">
        <ele>727.494</ele>
        <time>2018-12-28T13:04:39Z</time>
      </trkpt>
      <trkpt lat="35.920970" lon="-117.329730">
        <ele>727.974</ele>
        <time>2018-12-28T13:04:59Z</time>
      </trkpt>
      <trkpt lat="35.921460" lon="-117.329780">
        <ele>728.738</ele>
        <time>2018-12-28T13:05:19Z</time>
      </trkpt>
      <trkpt lat="35.921890" lon="-117.329840">
        <ele>729.352</ele>
        <time>2018-12-28T13:05:39Z</time>
      </trkpt>
      <trkpt lat="35.922190" lon="-117.329920">
        <ele>729.721</ele>
        <time>2018-12-28T13:05:59Z</time>
      </trkpt>
      <trkpt lat="35.922440" lon="-117.329980">
        <ele>730.186</ele>
        <time>2018-12-28T13:06:19Z</time>
      </trkpt>
      <trkpt lat="35.922710" lon="-117.330060">
        <ele>730.523</ele>
        <time>2018-12-28T13:06:39Z</time>
      </trkpt>
      <trkpt lat="35.922860" lon="-117.330100">
        <ele>730.883</ele>
        <time>2018-12-28T13:06:59Z</time>
      </trkpt>
      <trkpt lat="35.928570" lon="-117.331660">
        <ele>745.611</ele>
        <time>2018-12-28T13:07:19Z</time>
      </trkpt>
      <trkpt lat="35.929250" lon="-117.331840">
        <ele>747.608</ele>
        <time>2018-12-28T13:07:39Z</time>
      </trkpt>
      <trkpt lat="35.929890" lon="-117.332010">
        <ele>749.775</ele>
        <time>2018-12-28T13:07:59Z</time>
      </trkpt>
      <trkpt lat="35.931030" lon="-117.332330">
        <ele>754.683</ele>
        <time>2018-12-28T13:08:19Z</time>
      </trkpt>
      <trkpt lat="35.931990" lon="-117.332590">
        <ele>757.298</ele>
        <time>2018-12-28T13:08:39Z</time>
      </trkpt>
      <trkpt lat="35.932480" lon="-117.332720">
        <ele>758.358</ele>
        <time>2018-12-28T13:08:59Z</time>
      </trkpt>
      <trkpt lat="35.932730" lon="-117.332790">
        <ele>758.972</ele>
        <time>2018-12-28T13:09:19Z</time>
      </trkpt>
      <trkpt lat="35.934010" lon="-117.333130">
        <ele>762.346</ele>
        <time>2018-12-28T13:09:39Z</time>
      </trkpt>
      <trkpt lat="35.934850" lon="-117.333370">
        <ele>764.885</ele>
        <time>2018-12-28T13:09:59Z</time>
      </trkpt>
      <trkpt lat="35.935850" lon="-117.333640">
        <ele>769.340</ele>
        <time>2018-12-28T13:10:19Z</time>
      </trkpt>
      <trkpt lat="35.936450" lon="-117.333810">
        <ele>770.355</ele>
        <time>2018-12-28T13:10:39Z</time>
      </trkpt>
      <trkpt lat="35.937010" lon="-117.333960">
        <ele>772.007</ele>
        <time>2018-12-28T13:10:59Z</time>
      </trkpt>
      <trkpt lat="35.938170" lon="-117.334280">
        <ele>775.817</ele>
        <time>2018-12-28T13:11:19Z</time>
      </trkpt>
      <trkpt lat="35.939180" lon="-117.334540">
        <ele>779.908</ele>
        <time>2018-12-28T13:11:39Z</time>
      </trkpt>
      <trkpt lat="35.940050" lon="-117.334790">
        <ele>784.678</ele>
        <time>2018-12-28T13:11:59Z</time>
      </trkpt>
      <trkpt lat="35.940790" lon="-117.334990">
        <ele>788.416</ele>
        <time>2018-12-28T13:12:19Z</time>
      </trkpt>
      <trkpt lat="35.941480" lon="-117.335180">
        <ele>790.811</ele>
        <time>2018-12-28T13:12:39Z</time>
      </trkpt>
      <trkpt lat="35.942710" lon="-117.335510">
        <ele>793.091</ele>
        <time>2018-12-28T13:12:59Z</time>
      </trkpt>
      <trkpt lat="35.943410" lon="-117.335710">
        <ele>797.265</ele>
        <time>2018-12-28T13:13:19Z</time>
      </trkpt>
      <trkpt lat="35.944110" lon="-117.335910">
        <ele>803.179</ele>
        <time>2018-12-28T13:13:39Z</time>
      </trkpt>
      <trkpt lat="35.945290" lon="-117.336230">
        <ele>812.678</ele>
        <time>2018-12-28T13:13:59Z</time>
      </trkpt>
      <trkpt lat="35.945400" lon="-117.336260">
        <ele>813.413</ele>
        <time>2018-12-28T13:14:19Z</time>
      </trkpt>
      <trkpt lat="35.945480" lon="-117.336260">
        <ele>813.974</ele>
        <time>2018-12-28T13:14:39Z</time>
      </trkpt>
      <trkpt lat="35.945590" lon="-117.336270">
        <ele>814.356</ele>
        <time>2018-12-28T13:14:59Z</time>
      </trkpt>
      <trkpt lat="35.945910" lon="-117.336280">
        <ele>815.621</ele>
        <time>2018-12-28T13:15:19Z</time>
      </trkpt>
      <trkpt lat="35.946210" lon="-117.336240">
        <ele>817.008</ele>
        <time>2018-12-28T13:15:39Z</time>
      </trkpt>
      <trkpt lat="35.946540" lon="-117.336160">
        <ele>820.390</ele>
        <time>2018-12-28T13:15:59Z</time>
      </trkpt>
      <trkpt lat="35.946990" lon="-117.335970">
        <ele>823.528</ele>
        <time>2018-12-28T13:16:19Z</time>
      </trkpt>
      <trkpt lat="35.948150" lon="-117.335430">
        <ele>830.413</ele>
        <time>2018-12-28T13:16:39Z</time>
      </trkpt>
      <trkpt lat="35.948750" lon="-117.335150">
        <ele>831.853</ele>
        <time>2018-12-28T13:16:59Z</time>
      </trkpt>
      <trkpt lat="35.949080" lon="-117.335000">
        <ele>835.037</ele>
        <time>2018-12-28T13:17:19Z</time>
      </trkpt>
      <trkpt lat="35.950050" lon="-117.334550">
        <ele>844.081</ele>
        <time>2018-12-28T13:17:39Z</time>
      </trkpt>
      <trkpt lat="35.953190" lon="-117.333130">
        <ele>859.270</ele>
        <time>2018-12-28T13:17:59Z</time>
      </trkpt>
      <trkpt lat="35.953560" lon="-117.332960">
        <ele>860.475</ele>
        <time>2018-12-28T13:18:19Z</time>
      </trkpt>
      <trkpt lat="35.953950" lon="-117.332790">
        <ele>860.789</ele>
        <time>2018-12-28T13:18:39Z</time>
      </trkpt>
      <trkpt lat="35.954240" lon="-117.332690">
        <ele>861.606</ele>
        <time>2018-12-28T13:18:59Z</time>
      </trkpt>
      <trkpt lat="35.954360" lon="-117.332650">
        <ele>862.426</ele>
        <time>2018-12-28T13:19:19Z</time>
      </trkpt>
      <trkpt lat="35.954550" lon="-117.332630">
        <ele>863.008</ele>
        <time>2018-12-28T13:19:39Z</time>
      </trkpt>
      <trkpt lat="35.954840" lon="-117.332610">
        <ele>867.481</ele>
        <time>2018-12-28T13:19:59Z</time>
      </trkpt>
      <trkpt lat="35.955020" lon="-117.332610">
        <ele>869.079</ele>
        <time>2018-12-28T13:20:19Z</time>
      </trkpt>
      <trkpt lat="35.955230" lon="-117.332640">
        <ele>870.194</ele>
        <time>2018-12-28T13:20:39Z</time>
      </trkpt>
      <trkpt lat="35.955440" lon="-117.332690">
        <ele>870.914</ele>
        <time>2018-12-28T13:20:59Z</time>
      </trkpt>
      <trkpt lat="35.956920" lon="-117.333150">
        <ele>877.548</ele>
        <time>2018-12-28T13:21:19Z</time>
      </trkpt>
      <trkpt lat="35.957190" lon="-117.333290">
        <ele>881.092</ele>
        <time>2018-12-28T13:21:39Z</time>
      </trkpt>
      <trkpt lat="35.957460" lon="-117.333450">
        <ele>883.221</ele>
        <time>2018-12-28T13:21:59Z</time>
      </trkpt>
      <trkpt lat="35.957730" lon="-117.333670">
        <ele>883.556</ele>
        <time>2018-12-28T13:22:19Z</time>
      </trkpt>
      <trkpt lat="35.958700" lon="-117.334520">
        <ele>888.052</ele>
        <time>2018-12-28T13:22:39Z</time>
      </trkpt>
      <trkpt lat="35.958870" lon="-117.334680">
        <ele>890.553</ele>
        <time>2018-12-28T13:22:59Z</time>
      </trkpt>
      <trkpt lat="35.959040" lon="-117.334810">
        <ele>893.408</ele>
        <time>2018-12-28T13:23:19Z</time>
      </trkpt>
      <trkpt lat="35.959220" lon="-117.334920">
        <ele>893.508</ele>
        <time>2018-12-28T13:23:39Z</time>
      </trkpt>
      <trkpt lat="35.959410" lon="-117.334990">
        <ele>893.928</ele>
        <time>2018-12-28T13:23:59Z</time>
      </trkpt>
      <trkpt lat="35.959630" lon="-117.335040">
        <ele>894.346</ele>
        <time>2018-12-28T13:24:19Z</time>
      </trkpt>
      <trkpt lat="35.959880" lon="-117.335080">
        <ele>894.891</ele>
        <time>2018-12-28T13:24:39Z</time>
      </trkpt>
      <trkpt lat="35.960230" lon="-117.335130">
        <ele>896.321</ele>
        <time>2018-12-28T13:24:59Z</time>
      </trkpt>
      <trkpt lat="35.960490" lon="-117.335150">
        <ele>896.625</ele>
        <time>2018-12-28T13:25:19Z</time>
      </trkpt>
      <trkpt lat="35.960650" lon="-117.335190">
        <ele>896.979</ele>
        <time>2018-12-28T13:25:39Z</time>
      </trkpt>
      <trkpt lat="35.960800" lon="-117.335260">
        <ele>896.788</ele>
        <time>2018-12-28T13:25:59Z</time>
      </trkpt>
      <trkpt lat="35.960930" lon="-117.335320">
        <ele>895.163</ele>
        <time>2018-12-28T13:26:19Z</time>
      </trkpt>
      <trkpt lat="35.961040" lon="-117.335380">
        <ele>892.788</ele>
        <time>2018-12-28T13:26:39Z</time>
      </trkpt>
      <trkpt lat="35.961120" lon="-117.335440">
        <ele>891.124</ele>
        <time>2018-12-28T13:26:59Z</time>
      </trkpt>
      <trkpt lat="35.961200" lon="-117.335540">
        <ele>889.926</ele>
        <time>2018-12-28T13:27:19Z</time>
      </trkpt>
      <trkpt lat="35.961270" lon="-117.335640">
        <ele>888.308</ele>
        <time>2018-12-28T13:27:39Z</time>
      </trkpt>
      <trkpt lat="35.961350" lon="-117.335790">
        <ele>888.281</ele>
        <time>2018-12-28T13:27:59Z</time>
      </trkpt>
      <trkpt lat="35.961410" lon="-117.335930">
        <ele>888.869</ele>
        <time>2018-12-28T13:28:19Z</time>
      </trkpt>
      <trkpt lat="35.961500" lon="-117.336150">
        <ele>888.624</ele>
        <time>2018-12-28T13:28:39Z</time>
      </trkpt>
      <trkpt lat="35.961650" lon="-117.336520">
        <ele>887.864</ele>
        <time>2018-12-28T13:28:59Z</time>
      </trkpt>
      <trkpt lat="35.961800" lon="-117.336820">
        <ele>883.468</ele>
        <time>2018-12-28T13:29:19Z</time>
      </trkpt>
      <trkpt lat="35.961840" lon="-117.336890">
        <ele>881.392</ele>
        <time>2018-12-28T13:29:39Z</time>
      </trkpt>
      <trkpt lat="35.961880" lon="-117.336950">
        <ele>879.651</ele>
        <time>2018-12-28T13:29:59Z</time>
      </trkpt>
      <trkpt lat="35.961930" lon="-117.337050">
        <ele>877.656</ele>
        <time>2018-12-28T13:30:19Z</time>
      </trkpt>
      <trkpt lat="35.961950" lon="-117.337100">
        <ele>877.387</ele>
        <time>2018-12-28T13:30:39Z</time>
      </trkpt>
      <trkpt lat="35.962000" lon="-117.337210">
        <ele>877.342</ele>
        <time>2018-12-28T13:30:59Z</time>
      </trkpt>
      <trkpt lat="35.962140" lon="-117.337580">
        <ele>876.526</ele>
        <time>2018-12-28T13:31:19Z</time>
      </trkpt>
      <trkpt lat="35.962220" lon="-117.337780">
        <ele>877.508</ele>
        <time>2018-12-28T13:31:39Z</time>
      </trkpt>
      <trkpt lat="35.962290" lon="-117.337950">
        <ele>877.661</ele>
        <time>2018-12-28T13:31:59Z</time>
      </trkpt>
      <trkpt lat="35.962370" lon="-117.338140">
        <ele>876.759</ele>
        <time>2018-12-28T13:32:19Z</time>
      </trkpt>
      <trkpt lat="35.962530" lon="-117.338470">
        <ele>877.174</ele>
        <time>2018-12-28T13:32:39Z</time>
      </trkpt>
      <trkpt lat="35.962630" lon="-117.338630">
        <ele>875.494</ele>
        <time>2018-12-28T13:32:59Z</time>
      </trkpt>
      <trkpt lat="35.962710" lon="-117.338770">
        <ele>874.438</ele>
        <time>2018-12-28T13:33:19Z</time>
      </trkpt>
      <trkpt lat="35.962780" lon="-117.338860">
        <ele>872.292</ele>
        <time>2018-12-28T13:33:39Z</time>
      </trkpt>
      <trkpt lat="35.962860" lon="-117.338960">
        <ele>868.861</ele>
        <time>2018-12-28T13:33:59Z</time>
      </trkpt>
      <trkpt lat="35.962950" lon="-117.339050">
        <ele>865.426</ele>
        <time>2018-12-28T13:34:19Z</time>
      </trkpt>
      <trkpt lat="35.963040" lon="-117.339170">
        <ele>866.041</ele>
        <time>2018-12-28T13:34:39Z</time>
      </trkpt>
      <trkpt lat="35.963180" lon="-117.339360">
        <ele>866.281</ele>
        <time>2018-12-28T13:34:59Z</time>
      </trkpt>
      <trkpt lat="35.963300" lon="-117.339500">
        <ele>867.409</ele>
        <time>2018-12-28T13:35:19Z</time>
      </trkpt>
      <trkpt lat="35.963470" lon="-117.339680">
        <ele>866.008</ele>
        <time>2018-12-28T13:35:39Z</time>
      </trkpt>
      <trkpt lat="35.963590" lon="-117.339800">
        <ele>865.377</ele>
        <time>2018-12-28T13:35:59Z</time>
      </trkpt>
      <trkpt lat="35.963690" lon="-117.339890">
        <ele>864.085</ele>
        <time>2018-12-28T13:36:19Z</time>
      </trkpt>
      <trkpt lat="35.963760" lon="-117.339960">
        <ele>863.220</ele>
        <time>2018-12-28T13:36:39Z</time>
      </trkpt>
      <trkpt lat="35.963820" lon="-117.340020">
        <ele>862.020</ele>
        <time>2018-12-28T13:36:59Z</time>
      </trkpt>
      <trkpt lat="35.963890" lon="-117.340070">
        <ele>859.624</ele>
        <time>2018-12-28T13:37:19Z</time>
      </trkpt>
      <trkpt lat="35.963970" lon="-117.340120">
        <ele>856.218</ele>
        <time>2018-12-28T13:37:39Z</time>
      </trkpt>
      <trkpt lat="35.964090" lon="-117.340220">
        <ele>854.617</ele>
        <time>2018-12-28T13:37:59Z</time>
      </trkpt>
      <trkpt lat="35.964160" lon="-117.340290">
        <ele>854.532</ele>
        <time>2018-12-28T13:38:19Z</time>
      </trkpt>
      <trkpt lat="35.964240" lon="-117.340360">
        <ele>853.337</ele>
        <time>2018-12-28T13:38:39Z</time>
      </trkpt>
      <trkpt lat="35.964330" lon="-117.340440">
        <ele>852.049</ele>
        <time>2018-12-28T13:38:59Z</time>
      </trkpt>
      <trkpt lat="35.964400" lon="-117.340490">
        <ele>851.513</ele>
        <time>2018-12-28T13:39:19Z</time>
      </trkpt>
      <trkpt lat="35.964470" lon="-117.340540">
        <ele>850.208</ele>
        <time>2018-12-28T13:39:39Z</time>
      </trkpt>
      <trkpt lat="35.964520" lon="-117.340570">
        <ele>848.536</ele>
        <time>2018-12-28T13:39:59Z</time>
      </trkpt>
      <trkpt lat="35.964560" lon="-117.340590">
        <ele>846.964</ele>
        <time>2018-12-28T13:40:19Z</time>
      </trkpt>
      <trkpt lat="35.964650" lon="-117.340620">
        <ele>843.959</ele>
        <time>2018-12-28T13:40:39Z</time>
      </trkpt>
      <trkpt lat="35.964740" lon="-117.340650">
        <ele>841.619</ele>
        <time>2018-12-28T13:40:59Z</time>
      </trkpt>
      <trkpt lat="35.964850" lon="-117.340690">
        <ele>839.323</ele>
        <time>2018-12-28T13:41:19Z</time>
      </trkpt>
      <trkpt lat="35.964910" lon="-117.340720">
        <ele>840.087</ele>
        <time>2018-12-28T13:41:39Z</time>
      </trkpt>
      <trkpt lat="35.964990" lon="-117.340740">
        <ele>840.746</ele>
        <time>2018-12-28T13:41:59Z</time>
      </trkpt>
      <trkpt lat="35.965070" lon="-117.340750">
        <ele>841.011</ele>
        <time>2018-12-28T13:42:19Z</time>
      </trkpt>
      <trkpt lat="35.965170" lon="-117.340770">
        <ele>841.465</ele>
        <time>2018-12-28T13:42:39Z</time>
      </trkpt>
      <trkpt lat="35.965290" lon="-117.340760">
        <ele>840.068</ele>
        <time>2018-12-28T13:42:59Z</time>
      </trkpt>
      <trkpt lat="35.965400" lon="-117.340760">
        <ele>839.114</ele>
        <time>2018-12-28T13:43:19Z</time>
      </trkpt>
      <trkpt lat="35.966510" lon="-117.340700">
        <ele>829.308</ele>
        <time>2018-12-28T13:43:39Z</time>
      </trkpt>
      <trkpt lat="35.966670" lon="-117.340690">
        <ele>828.529</ele>
        <time>2018-12-28T13:43:59Z</time>
      </trkpt>
      <trkpt lat="35.966770" lon="-117.340700">
        <ele>828.547</ele>
        <time>2018-12-28T13:44:19Z</time>
      </trkpt>
      <trkpt lat="35.966850" lon="-117.340710">
        <ele>828.252</ele>
        <time>2018-12-28T13:44:39Z</time>
      </trkpt>
      <trkpt lat="35.966960" lon="-117.340720">
        <ele>827.452</ele>
        <time>2018-12-28T13:44:59Z</time>
      </trkpt>
      <trkpt lat="35.967020" lon="-117.340740">
        <ele>827.246</ele>
        <time>2018-12-28T13:45:19Z</time>
      </trkpt>
      <trkpt lat="35.967110" lon="-117.340770">
        <ele>826.720</ele>
        <time>2018-12-28T13:45:39Z</time>
      </trkpt>
      <trkpt lat="35.967200" lon="-117.340830">
        <ele>826.599</ele>
        <time>2018-12-28T13:45:59Z</time>
      </trkpt>
      <trkpt lat="35.967320" lon="-117.340910">
        <ele>825.874</ele>
        <time>2018-12-28T13:46:19Z</time>
      </trkpt>
      <trkpt lat="35.967400" lon="-117.340950">
        <ele>824.568</ele>
        <time>2018-12-28T13:46:39Z</time>
      </trkpt>
      <trkpt lat="35.967550" lon="-117.341020">
        <ele>820.642</ele>
        <time>2018-12-28T13:46:59Z</time>
      </trkpt>
      <trkpt lat="35.967680" lon="-117.341070">
        <ele>817.926</ele>
        <time>2018-12-28T13:47:19Z</time>
      </trkpt>
      <trkpt lat="35.967770" lon="-117.341090">
        <ele>817.408</ele>
        <time>2018-12-28T13:47:39Z</time>
      </trkpt>
      <trkpt lat="35.967870" lon="-117.341100">
        <ele>816.689</ele>
        <time>2018-12-28T13:47:59Z</time>
      </trkpt>
      <trkpt lat="35.967920" lon="-117.341090">
        <ele>816.127</ele>
        <time>2018-12-28T13:48:19Z</time>
      </trkpt>
      <trkpt lat="35.968010" lon="-117.341070">
        <ele>816.132</ele>
        <time>2018-12-28T13:48:39Z</time>
      </trkpt>
      <trkpt lat="35.968060" lon="-117.341040">
        <ele>816.042</ele>
        <time>2018-12-28T13:48:59Z</time>
      </trkpt>
      <trkpt lat="35.968190" lon="-117.340950">
        <ele>815.226</ele>
        <time>2018-12-28T13:49:19Z</time>
      </trkpt>
      <trkpt lat="35.968260" lon="-117.340890">
        <ele>814.610</ele>
        <time>2018-12-28T13:49:39Z</time>
      </trkpt>
      <trkpt lat="35.968290" lon="-117.340850">
        <ele>814.359</ele>
        <time>2018-12-28T13:49:59Z</time>
      </trkpt>
      <trkpt lat="35.968370" lon="-117.340730">
        <ele>813.684</ele>
        <time>2018-12-28T13:50:19Z</time>
      </trkpt>
      <trkpt lat="35.968420" lon="-117.340600">
        <ele>812.595</ele>
        <time>2018-12-28T13:50:39Z</time>
      </trkpt>
      <trkpt lat="35.968460" lon="-117.340440">
        <ele>810.349</ele>
        <time>2018-12-28T13:50:59Z</time>
      </trkpt>
      <trkpt lat="35.968480" lon="-117.340280">
        <ele>809.023</ele>
        <time>2018-12-28T13:51:19Z</time>
      </trkpt>
      <trkpt lat="35.968490" lon="-117.340200">
        <ele>808.508</ele>
        <time>2018-12-28T13:51:39Z</time>
      </trkpt>
      <trkpt lat="35.968510" lon="-117.340040">
        <ele>807.792</ele>
        <time>2018-12-28T13:51:59Z</time>
      </trkpt>
      <trkpt lat="35.968540" lon="-117.339930">
        <ele>807.220</ele>
        <time>2018-12-28T13:52:19Z</time>
      </trkpt>
      <trkpt lat="35.968590" lon="-117.339820">
        <ele>805.695</ele>
        <time>2018-12-28T13:52:39Z</time>
      </trkpt>
      <trkpt lat="35.968640" lon="-117.339740">
        <ele>803.745</ele>
        <time>2018-12-28T13:52:59Z</time>
      </trkpt>
      <trkpt lat="35.968710" lon="-117.339660">
        <ele>802.659</ele>
        <time>2018-12-28T13:53:19Z</time>
      </trkpt>
      <trkpt lat="35.968800" lon="-117.339590">
        <ele>802.393</ele>
        <time>2018-12-28T13:53:39Z</time>
      </trkpt>
      <trkpt lat="35.968870" lon="-117.339550">
        <ele>801.942</ele>
        <time>2018-12-28T13:53:59Z</time>
      </trkpt>
      <trkpt lat="35.968950" lon="-117.339530">
        <ele>802.257</ele>
        <time>2018-12-28T13:54:19Z</time>
      </trkpt>
      <trkpt lat="35.969020" lon="-117.339520">
        <ele>802.748</ele>
        <time>2018-12-28T13:54:39Z</time>
      </trkpt>
      <trkpt lat="35.969110" lon="-117.339520">
        <ele>802.261</ele>
        <time>2018-12-28T13:54:59Z</time>
      </trkpt>
      <trkpt lat="35.969150" lon="-117.339530">
        <ele>802.317</ele>
        <time>2018-12-28T13:55:19Z</time>
      </trkpt>
      <trkpt lat="35.969200" lon="-117.339550">
        <ele>802.508</ele>
        <time>2018-12-28T13:55:39Z</time>
      </trkpt>
      <trkpt lat="35.969280" lon="-117.339590">
        <ele>803.197</ele>
        <time>2018-12-28T13:55:59Z</time>
      </trkpt>
      <trkpt lat="35.969390" lon="-117.339670">
        <ele>802.765</ele>
        <time>2018-12-28T13:56:19Z</time>
      </trkpt>
      <trkpt lat="35.969480" lon="-117.339730">
        <ele>801.290</ele>
        <time>2018-12-28T13:56:39Z</time>
      </trkpt>
      <trkpt lat="35.969620" lon="-117.339800">
        <ele>797.870</ele>
        <time>2018-12-28T13:56:59Z</time>
      </trkpt>
      <trkpt lat="35.969710" lon="-117.339840">
        <ele>795.664</ele>
        <time>2018-12-28T13:57:19Z</time>
      </trkpt>
      <trkpt lat="35.969840" lon="-117.339900">
        <ele>792.838</ele>
        <time>2018-12-28T13:57:39Z</time>
      </trkpt>
      <trkpt lat="35.969930" lon="-117.339960">
        <ele>791.867</ele>
        <time>2018-12-28T13:57:59Z</time>
      </trkpt>
      <trkpt lat="35.970060" lon="-117.340040">
        <ele>790.982</ele>
        <time>2018-12-28T13:58:19Z</time>
      </trkpt>
      <trkpt lat="35.970200" lon="-117.340150">
        <ele>791.014</ele>
        <time>2018-12-28T13:58:39Z</time>
      </trkpt>
      <trkpt lat="35.970270" lon="-117.340220">
        <ele>791.454</ele>
        <time>2018-12-28T13:58:59Z</time>
      </trkpt>
      <trkpt lat="35.970310" lon="-117.340290">
        <ele>792.009</ele>
        <time>2018-12-28T13:59:19Z</time>
      </trkpt>
      <trkpt lat="35.970360" lon="-117.340360">
        <ele>791.808</ele>
        <time>2018-12-28T13:59:39Z</time>
      </trkpt>
      <trkpt lat="35.970420" lon="-117.340460">
        <ele>790.874</ele>
        <time>2018-12-28T13:59:59Z</time>
      </trkpt>
      <trkpt lat="35.970460" lon="-117.340510">
        <ele>788.842</ele>
        <time>2018-12-28T14:00:19Z</time>
      </trkpt>
      <trkpt lat="35.970500" lon="-117.340540">
        <ele>786.647</ele>
        <time>2018-12-28T14:00:39Z</time>
      </trkpt>
      <trkpt lat="35.970560" lon="-117.340560">
        <ele>783.177</ele>
        <time>2018-12-28T14:00:59Z</time>
      </trkpt>
      <trkpt lat="35.970610" lon="-117.340570">
        <ele>780.131</ele>
        <time>2018-12-28T14:01:19Z</time>
      </trkpt>
      <trkpt lat="35.970660" lon="-117.340590">
        <ele>777.165</ele>
        <time>2018-12-28T14:01:39Z</time>
      </trkpt>
      <trkpt lat="35.970740" lon="-117.340610">
        <ele>775.314</ele>
        <time>2018-12-28T14:01:59Z</time>
      </trkpt>
      <trkpt lat="35.970810" lon="-117.340620">
        <ele>775.719</ele>
        <time>2018-12-28T14:02:19Z</time>
      </trkpt>
      <trkpt lat="35.970870" lon="-117.340620">
        <ele>776.047</ele>
        <time>2018-12-28T14:02:39Z</time>
      </trkpt>
      <trkpt lat="35.970910" lon="-117.340610">
        <ele>776.029</ele>
        <time>2018-12-28T14:02:59Z</time>
      </trkpt>
      <trkpt lat="35.971030" lon="-117.340550">
        <ele>776.421</ele>
        <time>2018-12-28T14:03:19Z</time>
      </trkpt>
      <trkpt lat="35.971090" lon="-117.340500">
        <ele>776.608</ele>
        <time>2018-12-28T14:03:39Z</time>
      </trkpt>
      <trkpt lat="35.971140" lon="-117.340450">
        <ele>776.487</ele>
        <time>2018-12-28T14:03:59Z</time>
      </trkpt>
      <trkpt lat="35.971220" lon="-117.340310">
        <ele>774.825</ele>
        <time>2018-12-28T14:04:19Z</time>
      </trkpt>
      <trkpt lat="35.971300" lon="-117.340050">
        <ele>773.470</ele>
        <time>2018-12-28T14:04:39Z</time>
      </trkpt>
      <trkpt lat="35.971380" lon="-117.339730">
        <ele>771.720</ele>
        <time>2018-12-28T14:04:59Z</time>
      </trkpt>
      <trkpt lat="35.971420" lon="-117.339570">
        <ele>770.184</ele>
        <time>2018-12-28T14:05:19Z</time>
      </trkpt>
      <trkpt lat="35.971490" lon="-117.339410">
        <ele>768.158</ele>
        <time>2018-12-28T14:05:39Z</time>
      </trkpt>
      <trkpt lat="35.971570" lon="-117.339290">
        <ele>766.857</ele>
        <time>2018-12-28T14:05:59Z</time>
      </trkpt>
      <trkpt lat="35.971670" lon="-117.339210">
        <ele>767.132</ele>
        <time>2018-12-28T14:06:19Z</time>
      </trkpt>
      <trkpt lat="35.971730" lon="-117.339180">
        <ele>767.468</ele>
        <time>2018-12-28T14:06:39Z</time>
      </trkpt>
      <trkpt lat="35.971840" lon="-117.339170">
        <ele>768.442</ele>
        <time>2018-12-28T14:06:59Z</time>
      </trkpt>
      <trkpt lat="35.971920" lon="-117.339180">
        <ele>768.826</ele>
        <time>2018-12-28T14:07:19Z</time>
      </trkpt>
      <trkpt lat="35.971990" lon="-117.339200">
        <ele>769.108</ele>
        <time>2018-12-28T14:07:39Z</time>
      </trkpt>
      <trkpt lat="35.972040" lon="-117.339230">
        <ele>769.479</ele>
        <time>2018-12-28T14:07:59Z</time>
      </trkpt>
      <trkpt lat="35.972090" lon="-117.339280">
        <ele>769.467</ele>
        <time>2018-12-28T14:08:19Z</time>
      </trkpt>
      <trkpt lat="35.972160" lon="-117.339340">
        <ele>770.312</ele>
        <time>2018-12-28T14:08:39Z</time>
      </trkpt>
      <trkpt lat="35.972210" lon="-117.339440">
        <ele>771.642</ele>
        <time>2018-12-28T14:08:59Z</time>
      </trkpt>
      <trkpt lat="35.972250" lon="-117.339510">
        <ele>770.956</ele>
        <time>2018-12-28T14:09:19Z</time>
      </trkpt>
      <trkpt lat="35.972270" lon="-117.339610">
        <ele>770.090</ele>
        <time>2018-12-28T14:09:39Z</time>
      </trkpt>
      <trkpt lat="35.972280" lon="-117.339730">
        <ele>767.889</ele>
        <time>2018-12-28T14:09:59Z</time>
      </trkpt>
      <trkpt lat="35.972280" lon="-117.339910">
        <ele>765.384</ele>
        <time>2018-12-28T14:10:19Z</time>
      </trkpt>
      <trkpt lat="35.972280" lon="-117.340050">
        <ele>763.447</ele>
        <time>2018-12-28T14:10:39Z</time>
      </trkpt>
      <trkpt lat="35.972290" lon="-117.340190">
        <ele>761.129</ele>
        <time>2018-12-28T14:10:59Z</time>
      </trkpt>
      <trkpt lat="35.972320" lon="-117.340340">
        <ele>757.821</ele>
        <time>2018-12-28T14:11:19Z</time>
      </trkpt>
      <trkpt lat="35.972400" lon="-117.340520">
        <ele>754.608</ele>
        <time>2018-12-28T14:11:39Z</time>
      </trkpt>
      <trkpt lat="35.972460" lon="-117.340610">
        <ele>754.417</ele>
        <time>2018-12-28T14:11:59Z</time>
      </trkpt>
      <trkpt lat="35.972660" lon="-117.340830">
        <ele>756.885</ele>
        <time>2018-12-28T14:12:19Z</time>
      </trkpt>
      <trkpt lat="35.972740" lon="-117.340930">
        <ele>757.250</ele>
        <time>2018-12-28T14:12:39Z</time>
      </trkpt>
      <trkpt lat="35.973020" lon="-117.341230">
        <ele>754.790</ele>
        <time>2018-12-28T14:12:59Z</time>
      </trkpt>
      <trkpt lat="35.973170" lon="-117.341400">
        <ele>753.944</ele>
        <time>2018-12-28T14:13:19Z</time>
      </trkpt>
      <trkpt lat="35.973500" lon="-117.341760">
        <ele>751.958</ele>
        <time>2018-12-28T14:13:39Z</time>
      </trkpt>
      <trkpt lat="35.973770" lon="-117.342030">
        <ele>750.797</ele>
        <time>2018-12-28T14:13:59Z</time>
      </trkpt>
      <trkpt lat="35.973850" lon="-117.342110">
        <ele>750.562</ele>
        <time>2018-12-28T14:14:19Z</time>
      </trkpt>
      <trkpt lat="35.974090" lon="-117.342340">
        <ele>749.329</ele>
        <time>2018-12-28T14:14:39Z</time>
      </trkpt>
      <trkpt lat="35.974250" lon="-117.342480">
        <ele>748.500</ele>
        <time>2018-12-28T14:14:59Z</time>
      </trkpt>
      <trkpt lat="35.974390" lon="-117.342610">
        <ele>747.820</ele>
        <time>2018-12-28T14:15:19Z</time>
      </trkpt>
      <trkpt lat="35.974530" lon="-117.342750">
        <ele>746.108</ele>
        <time>2018-12-28T14:15:39Z</time>
      </trkpt>
      <trkpt lat="35.974700" lon="-117.342920">
        <ele>744.815</ele>
        <time>2018-12-28T14:15:59Z</time>
      </trkpt>
      <trkpt lat="35.974890" lon="-117.343100">
        <ele>743.253</ele>
        <time>2018-12-28T14:16:19Z</time>
      </trkpt>
      <trkpt lat="35.975040" lon="-117.343230">
        <ele>740.698</ele>
        <time>2018-12-28T14:16:39Z</time>
      </trkpt>
      <trkpt lat="35.975150" lon="-117.343310">
        <ele>737.268</ele>
        <time>2018-12-28T14:16:59Z</time>
      </trkpt>
      <trkpt lat="35.975300" lon="-117.343420">
        <ele>732.282</ele>
        <time>2018-12-28T14:17:19Z</time>
      </trkpt>
      <trkpt lat="35.975450" lon="-117.343550">
        <ele>728.726</ele>
        <time>2018-12-28T14:17:39Z</time>
      </trkpt>
      <trkpt lat="35.975870" lon="-117.343920">
        <ele>722.265</ele>
        <time>2018-12-28T14:17:59Z</time>
      </trkpt>
      <trkpt lat="35.976010" lon="-117.344110">
        <ele>719.430</ele>
        <time>2018-12-28T14:18:19Z</time>
      </trkpt>
      <trkpt lat="35.976210" lon="-117.344430">
        <ele>719.356</ele>
        <time>2018-12-28T14:18:39Z</time>
      </trkpt>
      <trkpt lat="35.976300" lon="-117.344580">
        <ele>718.359</ele>
        <time>2018-12-28T14:18:59Z</time>
      </trkpt>
      <trkpt lat="35.976460" lon="-117.344830">
        <ele>718.214</ele>
        <time>2018-12-28T14:19:19Z</time>
      </trkpt>
      <trkpt lat="35.976630" lon="-117.345060">
        <ele>716.608</ele>
        <time>2018-12-28T14:19:39Z</time>
      </trkpt>
      <trkpt lat="35.976710" lon="-117.345140">
        <ele>715.538</ele>
        <time>2018-12-28T14:19:59Z</time>
      </trkpt>
      <trkpt lat="35.976860" lon="-117.345270">
        <ele>714.286</ele>
        <time>2018-12-28T14:20:19Z</time>
      </trkpt>
      <trkpt lat="35.976980" lon="-117.345360">
        <ele>713.581</ele>
        <time>2018-12-28T14:20:39Z</time>
      </trkpt>
      <trkpt lat="35.977020" lon="-117.345390">
        <ele>713.211</ele>
        <time>2018-12-28T14:20:59Z</time>
      </trkpt>
      <trkpt lat="35.977150" lon="-117.345460">
        <ele>711.575</ele>
        <time>2018-12-28T14:21:19Z</time>
      </trkpt>
      <trkpt lat="35.977260" lon="-117.345510">
        <ele>710.249</ele>
        <time>2018-12-28T14:21:39Z</time>
      </trkpt>
      <trkpt lat="35.977390" lon="-117.345570">
        <ele>708.928</ele>
        <time>2018-12-28T14:21:59Z</time>
      </trkpt>
      <trkpt lat="35.977520" lon="-117.345610">
        <ele>708.443</ele>
        <time>2018-12-28T14:22:19Z</time>
      </trkpt>
      <trkpt lat="35.977710" lon="-117.345660">
        <ele>708.275</ele>
        <time>2018-12-28T14:22:39Z</time>
      </trkpt>
      <trkpt lat="35.977940" lon="-117.345690">
        <ele>708.328</ele>
        <time>2018-12-28T14:22:59Z</time>
      </trkpt>
      <trkpt lat="35.978790" lon="-117.345810">
        <ele>706.620</ele>
        <time>2018-12-28T14:23:19Z</time>
      </trkpt>
      <trkpt lat="35.979920" lon="-117.345980">
        <ele>706.008</ele>
        <time>2018-12-28T14:23:39Z</time>
      </trkpt>
      <trkpt lat="35.980170" lon="-117.346010">
        <ele>707.230</ele>
        <time>2018-12-28T14:23:59Z</time>
      </trkpt>
      <trkpt lat="35.980410" lon="-117.346040">
        <ele>708.848</ele>
        <time>2018-12-28T14:24:19Z</time>
      </trkpt>
      <trkpt lat="35.980710" lon="-117.346060">
        <ele>709.983</ele>
        <time>2018-12-28T14:24:39Z</time>
      </trkpt>
      <trkpt lat="35.980970" lon="-117.346050">
        <ele>710.783</ele>
        <time>2018-12-28T14:24:59Z</time>
      </trkpt>
      <trkpt lat="35.981200" lon="-117.346030">
        <ele>712.387</ele>
        <time>2018-12-28T14:25:19Z</time>
      </trkpt>
      <trkpt lat="35.981420" lon="-117.346000">
        <ele>712.741</ele>
        <time>2018-12-28T14:25:39Z</time>
      </trkpt>
      <trkpt lat="35.982010" lon="-117.345850">
        <ele>708.850</ele>
        <time>2018-12-28T14:25:59Z</time>
      </trkpt>
      <trkpt lat="35.982480" lon="-117.345710">
        <ele>705.195</ele>
        <time>2018-12-28T14:26:19Z</time>
      </trkpt>
      <trkpt lat="35.983770" lon="-117.345320">
        <ele>695.447</ele>
        <time>2018-12-28T14:26:39Z</time>
      </trkpt>
      <trkpt lat="35.984770" lon="-117.345010">
        <ele>692.629</ele>
        <time>2018-12-28T14:26:59Z</time>
      </trkpt>
      <trkpt lat="35.985420" lon="-117.344820">
        <ele>689.621</ele>
        <time>2018-12-28T14:27:19Z</time>
      </trkpt>
      <trkpt lat="35.985800" lon="-117.344690">
        <ele>688.108</ele>
        <time>2018-12-28T14:27:39Z</time>
      </trkpt>
      <trkpt lat="35.986150" lon="-117.344550">
        <ele>686.687</ele>
        <time>2018-12-28T14:27:59Z</time>
      </trkpt>
      <trkpt lat="35.986550" lon="-117.344370">
        <ele>685.285</ele>
        <time>2018-12-28T14:28:19Z</time>
      </trkpt>
      <trkpt lat="35.986830" lon="-117.344220">
        <ele>684.670</ele>
        <time>2018-12-28T14:28:39Z</time>
      </trkpt>
      <trkpt lat="35.987070" lon="-117.344090">
        <ele>684.220</ele>
        <time>2018-12-28T14:28:59Z</time>
      </trkpt>
      <trkpt lat="35.987250" lon="-117.343970">
        <ele>683.754</ele>
        <time>2018-12-28T14:29:19Z</time>
      </trkpt>
      <trkpt lat="35.987580" lon="-117.343750">
        <ele>680.558</ele>
        <time>2018-12-28T14:29:39Z</time>
      </trkpt>
      <trkpt lat="35.989300" lon="-117.342530">
        <ele>660.117</ele>
        <time>2018-12-28T14:29:59Z</time>
      </trkpt>
      <trkpt lat="35.990330" lon="-117.341790">
        <ele>652.572</ele>
        <time>2018-12-28T14:30:19Z</time>
      </trkpt>
      <trkpt lat="35.991230" lon="-117.341150">
        <ele>647.428</ele>
        <time>2018-12-28T14:30:39Z</time>
      </trkpt>
      <trkpt lat="35.991850" lon="-117.340710">
        <ele>642.189</ele>
        <time>2018-12-28T14:30:59Z</time>
      </trkpt>
      <trkpt lat="35.992330" lon="-117.340370">
        <ele>638.117</ele>
        <time>2018-12-28T14:31:19Z</time>
      </trkpt>
      <trkpt lat="35.992620" lon="-117.340160">
        <ele>636.208</ele>
        <time>2018-12-28T14:31:39Z</time>
      </trkpt>
      <trkpt lat="35.993420" lon="-117.339600">
        <ele>629.935</ele>
        <time>2018-12-28T14:31:59Z</time>
      </trkpt>
      <trkpt lat="35.993980" lon="-117.339190">
        <ele>625.713</ele>
        <time>2018-12-28T14:32:19Z</time>
      </trkpt>
      <trkpt lat="35.994300" lon="-117.338970">
        <ele>623.848</ele>
        <time>2018-12-28T14:32:39Z</time>
      </trkpt>
      <trkpt lat="35.995440" lon="-117.338160">
        <ele>617.118</ele>
        <time>2018-12-28T14:32:59Z</time>
      </trkpt>
      <trkpt lat="35.996010" lon="-117.337760">
        <ele>614.422</ele>
        <time>2018-12-28T14:33:19Z</time>
      </trkpt>
      <trkpt lat="35.996590" lon="-117.337350">
        <ele>611.446</ele>
        <time>2018-12-28T14:33:39Z</time>
      </trkpt>
      <trkpt lat="35.996640" lon="-117.337310">
        <ele>611.175</ele>
        <time>2018-12-28T14:33:59Z</time>
      </trkpt>
      <trkpt lat="35.996800" lon="-117.337200">
        <ele>610.360</ele>
        <time>2018-12-28T14:34:19Z</time>
      </trkpt>
      <trkpt lat="35.998260" lon="-117.336160">
        <ele>596.671</ele>
        <time>2018-12-28T14:34:39Z</time>
      </trkpt>
      <trkpt lat="35.999330" lon="-117.335390">
        <ele>592.841</ele>
        <time>2018-12-28T14:34:59Z</time>
      </trkpt>
      <trkpt lat="36.000930" lon="-117.334260">
        <ele>587.815</ele>
        <time>2018-12-28T14:35:19Z</time>
      </trkpt>
      <trkpt lat="36.001490" lon="-117.333870">
        <ele>586.208</ele>
        <time>2018-12-28T14:35:39Z</time>
      </trkpt>
      <trkpt lat="36.002020" lon="-117.333570">
        <ele>583.130</ele>
        <time>2018-12-28T14:35:59Z</time>
      </trkpt>
      <trkpt lat="36.002250" lon="-117.333440">
        <ele>582.158</ele>
        <time>2018-12-28T14:36:19Z</time>
      </trkpt>
      <trkpt lat="36.002590" lon="-117.333290">
        <ele>581.243</ele>
        <time>2018-12-28T14:36:39Z</time>
      </trkpt>
      <trkpt lat="36.003470" lon="-117.332950">
        <ele>576.833</ele>
        <time>2018-12-28T14:36:59Z</time>
      </trkpt>
      <trkpt lat="36.003800" lon="-117.332810">
        <ele>575.247</ele>
        <time>2018-12-28T14:37:19Z</time>
      </trkpt>
      <trkpt lat="36.006390" lon="-117.331780">
        <ele>562.781</ele>
        <time>2018-12-28T14:37:39Z</time>
      </trkpt>
      <trkpt lat="36.007120" lon="-117.331480">
        <ele>561.960</ele>
        <time>2018-12-28T14:37:59Z</time>
      </trkpt>
      <trkpt lat="36.008090" lon="-117.331100">
        <ele>555.425</ele>
        <time>2018-12-28T14:38:19Z</time>
      </trkpt>
      <trkpt lat="36.009350" lon="-117.330570">
        <ele>549.888</ele>
        <time>2018-12-28T14:38:39Z</time>
      </trkpt>
      <trkpt lat="36.009630" lon="-117.330440">
        <ele>550.024</ele>
        <time>2018-12-28T14:38:59Z</time>
      </trkpt>
      <trkpt lat="36.010040" lon="-117.330220">
        <ele>548.526</ele>
        <time>2018-12-28T14:39:19Z</time>
      </trkpt>
      <trkpt lat="36.010380" lon="-117.330040">
        <ele>547.608</ele>
        <time>2018-12-28T14:39:39Z</time>
      </trkpt>
      <trkpt lat="36.010850" lon="-117.329760">
        <ele>546.541</ele>
        <time>2018-12-28T14:39:59Z</time>
      </trkpt>
      <trkpt lat="36.011240" lon="-117.329520">
        <ele>545.949</ele>
        <time>2018-12-28T14:40:19Z</time>
      </trkpt>
      <trkpt lat="36.011520" lon="-117.329340">
        <ele>545.674</ele>
        <time>2018-12-28T14:40:39Z</time>
      </trkpt>
      <trkpt lat="36.011970" lon="-117.329020">
        <ele>544.884</ele>
        <time>2018-12-28T14:40:59Z</time>
      </trkpt>
      <trkpt lat="36.014170" lon="-117.327490">
        <ele>537.518</ele>
        <time>2018-12-28T14:41:19Z</time>
      </trkpt>
      <trkpt lat="36.014500" lon="-117.327240">
        <ele>537.432</ele>
        <time>2018-12-28T14:41:39Z</time>
      </trkpt>
      <trkpt lat="36.014690" lon="-117.327090">
        <ele>537.561</ele>
        <time>2018-12-28T14:41:59Z</time>
      </trkpt>
      <trkpt lat="36.015000" lon="-117.326820">
        <ele>537.146</ele>
        <time>2018-12-28T14:42:19Z</time>
      </trkpt>
      <trkpt lat="36.015190" lon="-117.326640">
        <ele>536.426</ele>
        <time>2018-12-28T14:42:39Z</time>
      </trkpt>
      <trkpt lat="36.015340" lon="-117.326480">
        <ele>536.047</ele>
        <time>2018-12-28T14:42:59Z</time>
      </trkpt>
      <trkpt lat="36.015470" lon="-117.326340">
        <ele>535.811</ele>
        <time>2018-12-28T14:43:19Z</time>
      </trkpt>
      <trkpt lat="36.015660" lon="-117.326120">
        <ele>535.508</ele>
        <time>2018-12-28T14:43:39Z</time>
      </trkpt>
      <trkpt lat="36.015860" lon="-117.325860">
        <ele>535.395</ele>
        <time>2018-12-28T14:43:59Z</time>
      </trkpt>
      <trkpt lat="36.016150" lon="-117.325480">
        <ele>535.293</ele>
        <time>2018-12-28T14:44:19Z</time>
      </trkpt>
      <trkpt lat="36.016360" lon="-117.325200">
        <ele>533.998</ele>
        <time>2018-12-28T14:44:39Z</time>
      </trkpt>
      <trkpt lat="36.016750" lon="-117.324650">
        <ele>531.598</ele>
        <time>2018-12-28T14:44:59Z</time>
      </trkpt>
      <trkpt lat="36.017150" lon="-117.324100">
        <ele>529.742</ele>
        <time>2018-12-28T14:45:19Z</time>
      </trkpt>
      <trkpt lat="36.017550" lon="-117.323580">
        <ele>526.116</ele>
        <time>2018-12-28T14:45:39Z</time>
      </trkpt>
      <trkpt lat="36.017840" lon="-117.323230">
        <ele>523.755</ele>
        <time>2018-12-28T14:45:59Z</time>
      </trkpt>
      <trkpt lat="36.017910" lon="-117.323150">
        <ele>523.130</ele>
        <time>2018-12-28T14:46:19Z</time>
      </trkpt>
      <trkpt lat="36.018340" lon="-117.322670">
        <ele>519.818</ele>
        <time>2018-12-28T14:46:39Z</time>
      </trkpt>
      <trkpt lat="36.018670" lon="-117.322330">
        <ele>519.398</ele>
        <time>2018-12-28T14:46:59Z</time>
      </trkpt>
      <trkpt lat="36.018910" lon="-117.322070">
        <ele>519.517</ele>
        <time>2018-12-28T14:47:19Z</time>
      </trkpt>
      <trkpt lat="36.019150" lon="-117.321770">
        <ele>519.508</ele>
        <time>2018-12-28T14:47:39Z</time>
      </trkpt>
      <trkpt lat="36.019320" lon="-117.321550">
        <ele>519.454</ele>
        <time>2018-12-28T14:47:59Z</time>
      </trkpt>
      <trkpt lat="36.019550" lon="-117.321210">
        <ele>519.312</ele>
        <time>2018-12-28T14:48:19Z</time>
      </trkpt>
      <trkpt lat="36.019700" lon="-117.320970">
        <ele>519.637</ele>
        <time>2018-12-28T14:48:39Z</time>
      </trkpt>
      <trkpt lat="36.019780" lon="-117.320820">
        <ele>519.917</ele>
        <time>2018-12-28T14:48:59Z</time>
      </trkpt>
      <trkpt lat="36.019900" lon="-117.320580">
        <ele>520.041</ele>
        <time>2018-12-28T14:49:19Z</time>
      </trkpt>
      <trkpt lat="36.020180" lon="-117.319950">
        <ele>518.385</ele>
        <time>2018-12-28T14:49:39Z</time>
      </trkpt>
      <trkpt lat="36.020420" lon="-117.319300">
        <ele>515.614</ele>
        <time>2018-12-28T14:49:59Z</time>
      </trkpt>
      <trkpt lat="36.020630" lon="-117.318740">
        <ele>514.339</ele>
        <time>2018-12-28T14:50:19Z</time>
      </trkpt>
      <trkpt lat="36.020760" lon="-117.318390">
        <ele>514.937</ele>
        <time>2018-12-28T14:50:39Z</time>
      </trkpt>
      <trkpt lat="36.020920" lon="-117.317990">
        <ele>514.849</ele>
        <time>2018-12-28T14:50:59Z</time>
      </trkpt>
      <trkpt lat="36.021090" lon="-117.317610">
        <ele>512.713</ele>
        <time>2018-12-28T14:51:19Z</time>
      </trkpt>
      <trkpt lat="36.021290" lon="-117.317180">
        <ele>510.908</ele>
        <time>2018-12-28T14:51:39Z</time>
      </trkpt>
      <trkpt lat="36.021560" lon="-117.316630">
        <ele>508.516</ele>
        <time>2018-12-28T14:51:59Z</time>
      </trkpt>
      <trkpt lat="36.021850" lon="-117.316040">
        <ele>506.414</ele>
        <time>2018-12-28T14:52:19Z</time>
      </trkpt>
      <trkpt lat="36.022140" lon="-117.315460">
        <ele>504.429</ele>
        <time>2018-12-28T14:52:39Z</time>
      </trkpt>
      <trkpt lat="36.022360" lon="-117.315010">
        <ele>503.369</ele>
        <time>2018-12-28T14:52:59Z</time>
      </trkpt>
      <trkpt lat="36.022660" lon="-117.314400">
        <ele>502.683</ele>
        <time>2018-12-28T14:53:19Z</time>
      </trkpt>
      <trkpt lat="36.022910" lon="-117.313900">
        <ele>501.917</ele>
        <time>2018-12-28T14:53:39Z</time>
      </trkpt>
      <trkpt lat="36.023150" lon="-117.313400">
        <ele>500.646</ele>
        <time>2018-12-28T14:53:59Z</time>
      </trkpt>
      <trkpt lat="36.023450" lon="-117.312810">
        <ele>498.651</ele>
        <time>2018-12-28T14:54:19Z</time>
      </trkpt>
      <trkpt lat="36.023710" lon="-117.312260">
        <ele>497.865</ele>
        <time>2018-12-28T14:54:39Z</time>
      </trkpt>
      <trkpt lat="36.023970" lon="-117.311730">
        <ele>497.268</ele>
        <time>2018-12-28T14:54:59Z</time>
      </trkpt>
      <trkpt lat="36.024250" lon="-117.311170">
        <ele>496.214</ele>
        <time>2018-12-28T14:55:19Z</time>
      </trkpt>
      <trkpt lat="36.024530" lon="-117.310600">
        <ele>495.108</ele>
        <time>2018-12-28T14:55:39Z</time>
      </trkpt>
      <trkpt lat="36.024730" lon="-117.310190">
        <ele>493.849</ele>
        <time>2018-12-28T14:55:59Z</time>
      </trkpt>
      <trkpt lat="36.024960" lon="-117.309710">
        <ele>492.177</ele>
        <time>2018-12-28T14:56:19Z</time>
      </trkpt>
      <trkpt lat="36.025170" lon="-117.309280">
        <ele>490.882</ele>
        <time>2018-12-28T14:56:39Z</time>
      </trkpt>
      <trkpt lat="36.025420" lon="-117.308790">
        <ele>489.552</ele>
        <time>2018-12-28T14:56:59Z</time>
      </trkpt>
      <trkpt lat="36.025670" lon="-117.308300">
        <ele>488.136</ele>
        <time>2018-12-28T14:57:19Z</time>
      </trkpt>
      <trkpt lat="36.025820" lon="-117.307990">
        <ele>486.910</ele>
        <time>2018-12-28T14:57:39Z</time>
      </trkpt>
      <trkpt lat="36.026080" lon="-117.307460">
        <ele>485.039</ele>
        <time>2018-12-28T14:57:59Z</time>
      </trkpt>
      <trkpt lat="36.026180" lon="-117.307230">
        <ele>484.314</ele>
        <time>2018-12-28T14:58:19Z</time>
      </trkpt>
      <trkpt lat="36.026260" lon="-117.307040">
        <ele>483.853</ele>
        <time>2018-12-28T14:58:39Z</time>
      </trkpt>
      <trkpt lat="36.026500" lon="-117.306480">
        <ele>482.204</ele>
        <time>2018-12-28T14:58:59Z</time>
      </trkpt>
      <trkpt lat="36.026680" lon="-117.306010">
        <ele>480.114</ele>
        <time>2018-12-28T14:59:19Z</time>
      </trkpt>
      <trkpt lat="36.026850" lon="-117.305530">
        <ele>478.808</ele>
        <time>2018-12-28T14:59:39Z</time>
      </trkpt>
      <trkpt lat="36.027080" lon="-117.304730">
        <ele>477.678</ele>
        <time>2018-12-28T14:59:59Z</time>
      </trkpt>
      <trkpt lat="36.027130" lon="-117.304500">
        <ele>477.666</ele>
        <time>2018-12-28T15:00:19Z</time>
      </trkpt>
      <trkpt lat="36.027260" lon="-117.303900">
        <ele>477.321</ele>
        <time>2018-12-28T15:00:39Z</time>
      </trkpt>
      <trkpt lat="36.027370" lon="-117.303260">
        <ele>476.341</ele>
        <time>2018-12-28T15:00:59Z</time>
      </trkpt>
      <trkpt lat="36.027450" lon="-117.302780">
        <ele>474.985</ele>
        <time>2018-12-28T15:01:19Z</time>
      </trkpt>
      <trkpt lat="36.027510" lon="-117.302270">
        <ele>473.279</ele>
        <time>2018-12-28T15:01:39Z</time>
      </trkpt>
      <trkpt lat="36.027640" lon="-117.300970">
        <ele>471.748</ele>
        <time>2018-12-28T15:01:59Z</time>
      </trkpt>
      <trkpt lat="36.027780" lon="-117.299700">
        <ele>469.193</ele>
        <time>2018-12-28T15:02:19Z</time>
      </trkpt>
      <trkpt lat="36.028040" lon="-117.297430">
        <ele>461.623</ele>
        <time>2018-12-28T15:02:39Z</time>
      </trkpt>
      <trkpt lat="36.028200" lon="-117.295930">
        <ele>455.983</ele>
        <time>2018-12-28T15:02:59Z</time>
      </trkpt>
      <trkpt lat="36.028400" lon="-117.294070">
        <ele>448.611</ele>
        <time>2018-12-28T15:03:19Z</time>
      </trkpt>
      <trkpt lat="36.028580" lon="-117.292370">
        <ele>446.308</ele>
        <time>2018-12-28T15:03:39Z</time>
      </trkpt>
      <trkpt lat="36.028760" lon="-117.290760">
        <ele>440.015</ele>
        <time>2018-12-28T15:03:59Z</time>
      </trkpt>
      <trkpt lat="36.028880" lon="-117.289840">
        <ele>434.593</ele>
        <time>2018-12-28T15:04:19Z</time>
      </trkpt>
      <trkpt lat="36.028960" lon="-117.288930">
        <ele>434.478</ele>
        <time>2018-12-28T15:04:39Z</time>
      </trkpt>
      <trkpt lat="36.029020" lon="-117.288400">
        <ele>433.598</ele>
        <time>2018-12-28T15:04:59Z</time>
      </trkpt>
      <trkpt lat="36.029140" lon="-117.287820">
        <ele>429.972</ele>
        <time>2018-12-28T15:05:19Z</time>
      </trkpt>
      <trkpt lat="36.029240" lon="-117.287390">
        <ele>428.976</ele>
        <time>2018-12-28T15:05:39Z</time>
      </trkpt>
      <trkpt lat="36.029480" lon="-117.286560">
        <ele>425.615</ele>
        <time>2018-12-28T15:05:59Z</time>
      </trkpt>
      <trkpt lat="36.029710" lon="-117.286000">
        <ele>422.660</ele>
        <time>2018-12-28T15:06:19Z</time>
      </trkpt>
      <trkpt lat="36.029870" lon="-117.285600">
        <ele>421.173</ele>
        <time>2018-12-28T15:06:39Z</time>
      </trkpt>
      <trkpt lat="36.030040" lon="-117.285260">
        <ele>418.885</ele>
        <time>2018-12-28T15:06:59Z</time>
      </trkpt>
      <trkpt lat="36.030310" lon="-117.284770">
        <ele>416.713</ele>
        <time>2018-12-28T15:07:19Z</time>
      </trkpt>
      <trkpt lat="36.030470" lon="-117.284520">
        <ele>415.908</ele>
        <time>2018-12-28T15:07:39Z</time>
      </trkpt>
      <trkpt lat="36.030640" lon="-117.284270">
        <ele>414.970</ele>
        <time>2018-12-28T15:07:59Z</time>
      </trkpt>
      <trkpt lat="36.030890" lon="-117.283920">
        <ele>412.958</ele>
        <time>2018-12-28T15:08:19Z</time>
      </trkpt>
      <trkpt lat="36.031080" lon="-117.283680">
        <ele>412.053</ele>
        <time>2018-12-28T15:08:39Z</time>
      </trkpt>
      <trkpt lat="36.031280" lon="-117.283440">
        <ele>411.063</ele>
        <time>2018-12-28T15:08:59Z</time>
      </trkpt>
      <trkpt lat="36.031550" lon="-117.283150">
        <ele>410.297</ele>
        <time>2018-12-28T15:09:19Z</time>
      </trkpt>
      <trkpt lat="36.031760" lon="-117.282940">
        <ele>409.631</ele>
        <time>2018-12-28T15:09:39Z</time>
      </trkpt>
      <trkpt lat="36.031920" lon="-117.282790">
        <ele>408.850</ele>
        <time>2018-12-28T15:09:59Z</time>
      </trkpt>
      <trkpt lat="36.032240" lon="-117.282520">
        <ele>407.045</ele>
        <time>2018-12-28T15:10:19Z</time>
      </trkpt>
      <trkpt lat="36.032480" lon="-117.282320">
        <ele>405.752</ele>
        <time>2018-12-28T15:10:39Z</time>
      </trkpt>
      <trkpt lat="36.032840" lon="-117.282090">
        <ele>404.453</ele>
        <time>2018-12-28T15:10:59Z</time>
      </trkpt>
      <trkpt lat="36.033120" lon="-117.281900">
        <ele>403.208</ele>
        <time>2018-12-28T15:11:19Z</time>
      </trkpt>
      <trkpt lat="36.033520" lon="-117.281700">
        <ele>401.508</ele>
        <time>2018-12-28T15:11:39Z</time>
      </trkpt>
      <trkpt lat="36.033640" lon="-117.281640">
        <ele>400.918</ele>
        <time>2018-12-28T15:11:59Z</time>
      </trkpt>
      <trkpt lat="36.034020" lon="-117.281490">
        <ele>399.496</ele>
        <time>2018-12-28T15:12:19Z</time>
      </trkpt>
      <trkpt lat="36.034270" lon="-117.281410">
        <ele>398.731</ele>
        <time>2018-12-28T15:12:39Z</time>
      </trkpt>
      <trkpt lat="36.034740" lon="-117.281270">
        <ele>397.281</ele>
        <time>2018-12-28T15:12:59Z</time>
      </trkpt>
      <trkpt lat="36.035060" lon="-117.281190">
        <ele>395.945</ele>
        <time>2018-12-28T15:13:19Z</time>
      </trkpt>
      <trkpt lat="36.036610" lon="-117.280900">
        <ele>391.519</ele>
        <time>2018-12-28T15:13:39Z</time>
      </trkpt>
      <trkpt lat="36.038440" lon="-117.280580">
        <ele>385.228</ele>
        <time>2018-12-28T15:13:59Z</time>
      </trkpt>
      <trkpt lat="36.039920" lon="-117.280310">
        <ele>382.323</ele>
        <time>2018-12-28T15:14:19Z</time>
      </trkpt>
      <trkpt lat="36.040980" lon="-117.280100">
        <ele>381.673</ele>
        <time>2018-12-28T15:14:39Z</time>
      </trkpt>
      <trkpt lat="36.044490" lon="-117.279480">
        <ele>377.485</ele>
        <time>2018-12-28T15:14:59Z</time>
      </trkpt>
      <trkpt lat="36.044870" lon="-117.279420">
        <ele>375.813</ele>
        <time>2018-12-28T15:15:19Z</time>
      </trkpt>
      <trkpt lat="36.045210" lon="-117.279380">
        <ele>375.008</ele>
        <time>2018-12-28T15:15:39Z</time>
      </trkpt>
      <trkpt lat="36.045370" lon="-117.279370">
        <ele>374.940</ele>
        <time>2018-12-28T15:15:59Z</time>
      </trkpt>
      <trkpt lat="36.045690" lon="-117.279360">
        <ele>374.938</ele>
        <time>2018-12-28T15:16:19Z</time>
      </trkpt>
      <trkpt lat="36.046320" lon="-117.279390">
        <ele>374.923</ele>
        <time>2018-12-28T15:16:39Z</time>
      </trkpt>
      <trkpt lat="36.046620" lon="-117.279410">
        <ele>374.693</ele>
        <time>2018-12-28T15:16:59Z</time>
      </trkpt>
      <trkpt lat="36.046970" lon="-117.279440">
        <ele>374.157</ele>
        <time>2018-12-28T15:17:19Z</time>
      </trkpt>
      <trkpt lat="36.047350" lon="-117.279500">
        <ele>373.741</ele>
        <time>2018-12-28T15:17:39Z</time>
      </trkpt>
      <trkpt lat="36.048770" lon="-117.279750">
        <ele>372.140</ele>
        <time>2018-12-28T15:17:59Z</time>
      </trkpt>
      <trkpt lat="36.052440" lon="-117.280420">
        <ele>369.985</ele>
        <time>2018-12-28T15:18:19Z</time>
      </trkpt>
      <trkpt lat="36.053950" lon="-117.280670">
        <ele>368.874</ele>
        <time>2018-12-28T15:18:39Z</time>
      </trkpt>
      <trkpt lat="36.059410" lon="-117.281660">
        <ele>363.656</ele>
        <time>2018-12-28T15:18:59Z</time>
      </trkpt>
      <trkpt lat="36.060180" lon="-117.281780">
        <ele>362.321</ele>
        <time>2018-12-28T15:19:19Z</time>
      </trkpt>
      <trkpt lat="36.064010" lon="-117.282450">
        <ele>359.708</ele>
        <time>2018-12-28T15:19:39Z</time>
      </trkpt>
      <trkpt lat="36.067530" lon="-117.283090">
        <ele>356.090</ele>
        <time>2018-12-28T15:19:59Z</time>
      </trkpt>
      <trkpt lat="36.068960" lon="-117.283330">
        <ele>354.178</ele>
        <time>2018-12-28T15:20:19Z</time>
      </trkpt>
      <trkpt lat="36.071820" lon="-117.283840">
        <ele>350.663</ele>
        <time>2018-12-28T15:20:39Z</time>
      </trkpt>
      <trkpt lat="36.074840" lon="-117.284360">
        <ele>347.693</ele>
        <time>2018-12-28T15:20:59Z</time>
      </trkpt>
      <trkpt lat="36.076200" lon="-117.284610">
        <ele>347.397</ele>
        <time>2018-12-28T15:21:19Z</time>
      </trkpt>
      <trkpt lat="36.077570" lon="-117.284840">
        <ele>346.551</ele>
        <time>2018-12-28T15:21:39Z</time>
      </trkpt>
      <trkpt lat="36.081500" lon="-117.285560">
        <ele>344.910</ele>
        <time>2018-12-28T15:21:59Z</time>
      </trkpt>
      <trkpt lat="36.084560" lon="-117.286090">
        <ele>343.985</ele>
        <time>2018-12-28T15:22:19Z</time>
      </trkpt>
      <trkpt lat="36.086730" lon="-117.286480">
        <ele>343.155</ele>
        <time>2018-12-28T15:22:39Z</time>
      </trkpt>
      <trkpt lat="36.093520" lon="-117.287670">
        <ele>340.607</ele>
        <time>2018-12-28T15:22:59Z</time>
      </trkpt>
      <trkpt lat="36.097420" lon="-117.288360">
        <ele>339.717</ele>
        <time>2018-12-28T15:23:19Z</time>
      </trkpt>
      <trkpt lat="36.099340" lon="-117.288700">
        <ele>339.408</ele>
        <time>2018-12-28T15:23:39Z</time>
      </trkpt>
      <trkpt lat="36.099560" lon="-117.288750">
        <ele>339.398</ele>
        <time>2018-12-28T15:23:59Z</time>
      </trkpt>
      <trkpt lat="36.100010" lon="-117.288820">
        <ele>339.366</ele>
        <time>2018-12-28T15:24:19Z</time>
      </trkpt>
      <trkpt lat="36.100260" lon="-117.288860">
        <ele>339.391</ele>
        <time>2018-12-28T15:24:39Z</time>
      </trkpt>
      <trkpt lat="36.102850" lon="-117.289340">
        <ele>339.031</ele>
        <time>2018-12-28T15:24:59Z</time>
      </trkpt>
      <trkpt lat="36.103470" lon="-117.289460">
        <ele>338.925</ele>
        <time>2018-12-28T15:25:19Z</time>
      </trkpt>
      <trkpt lat="36.108670" lon="-117.290370">
        <ele>338.589</ele>
        <time>2018-12-28T15:25:39Z</time>
      </trkpt>
      <trkpt lat="36.134880" lon="-117.295000">
        <ele>354.848</ele>
        <time>2018-12-28T15:25:59Z</time>
      </trkpt>
      <trkpt lat="36.150710" lon="-117.297810">
        <ele>368.443</ele>
        <time>2018-12-28T15:26:19Z</time>
      </trkpt>
      <trkpt lat="36.151260" lon="-117.297900">
        <ele>369.137</ele>
        <time>2018-12-28T15:26:39Z</time>
      </trkpt>
      <trkpt lat="36.153060" lon="-117.298220">
        <ele>371.449</ele>
        <time>2018-12-28T15:26:59Z</time>
      </trkpt>
      <trkpt lat="36.163610" lon="-117.300070">
        <ele>387.613</ele>
        <time>2018-12-28T15:27:19Z</time>
      </trkpt>
      <trkpt lat="36.165210" lon="-117.300360">
        <ele>390.708</ele>
        <time>2018-12-28T15:27:39Z</time>
      </trkpt>
      <trkpt lat="36.165680" lon="-117.300450">
        <ele>392.366</ele>
        <time>2018-12-28T15:27:59Z</time>
      </trkpt>
      <trkpt lat="36.165980" lon="-117.300490">
        <ele>393.884</ele>
        <time>2018-12-28T15:28:19Z</time>
      </trkpt>
      <trkpt lat="36.166340" lon="-117.300530">
        <ele>395.229</ele>
        <time>2018-12-28T15:28:39Z</time>
      </trkpt>
      <trkpt lat="36.166670" lon="-117.300550">
        <ele>396.199</ele>
        <time>2018-12-28T15:28:59Z</time>
      </trkpt>
      <trkpt lat="36.167060" lon="-117.300550">
        <ele>397.023</ele>
        <time>2018-12-28T15:29:19Z</time>
      </trkpt>
      <trkpt lat="36.167300" lon="-117.300550">
        <ele>397.637</ele>
        <time>2018-12-28T15:29:39Z</time>
      </trkpt>
      <trkpt lat="36.167520" lon="-117.300540">
        <ele>398.186</ele>
        <time>2018-12-28T15:29:59Z</time>
      </trkpt>
      <trkpt lat="36.167960" lon="-117.300490">
        <ele>399.221</ele>
        <time>2018-12-28T15:30:19Z</time>
      </trkpt>
      <trkpt lat="36.168600" lon="-117.300380">
        <ele>400.611</ele>
        <time>2018-12-28T15:30:39Z</time>
      </trkpt>
      <trkpt lat="36.169000" lon="-117.300280">
        <ele>401.321</ele>
        <time>2018-12-28T15:30:59Z</time>
      </trkpt>
      <trkpt lat="36.168996" lon="-117.300280">
        <ele>401.303</ele>
        <time>2018-12-28T15:31:19Z</time>
      </trkpt>
      <trkpt lat="36.169130" lon="-117.301130">
        <ele>401.708</ele>
        <time>2018-12-28T15:31:39Z</time>
      </trkpt>
      <trkpt lat="36.169240" lon="-117.301610">
        <ele>402.094</ele>
        <time>2018-12-28T15:31:59Z</time>
      </trkpt>
      <trkpt lat="36.169390" lon="-117.302070">
        <ele>402.412</ele>
        <time>2018-12-28T15:32:19Z</time>
      </trkpt>
      <trkpt lat="36.169580" lon="-117.302510">
        <ele>402.867</ele>
        <time>2018-12-28T15:32:39Z</time>
      </trkpt>
      <trkpt lat="36.169800" lon="-117.302930">
        <ele>403.377</ele>
        <time>2018-12-28T15:32:59Z</time>
      </trkpt>
      <trkpt lat="36.169980" lon="-117.303200">
        <ele>403.931</ele>
        <time>2018-12-28T15:33:19Z</time>
      </trkpt>
      <trkpt lat="36.170090" lon="-117.303350">
        <ele>404.265</ele>
        <time>2018-12-28T15:33:39Z</time>
      </trkpt>
      <trkpt lat="36.170240" lon="-117.303520">
        <ele>404.754</ele>
        <time>2018-12-28T15:33:59Z</time>
      </trkpt>
      <trkpt lat="36.170550" lon="-117.303840">
        <ele>405.549</ele>
        <time>2018-12-28T15:34:19Z</time>
      </trkpt>
      <trkpt lat="36.171200" lon="-117.304350">
        <ele>407.295</ele>
        <time>2018-12-28T15:34:39Z</time>
      </trkpt>
      <trkpt lat="36.172960" lon="-117.305650">
        <ele>411.049</ele>
        <time>2018-12-28T15:34:59Z</time>
      </trkpt>
      <trkpt lat="36.176330" lon="-117.308180">
        <ele>419.323</ele>
        <time>2018-12-28T15:35:19Z</time>
      </trkpt>
      <trkpt lat="36.178580" lon="-117.309860">
        <ele>425.408</ele>
        <time>2018-12-28T15:35:39Z</time>
      </trkpt>
      <trkpt lat="36.179580" lon="-117.310620">
        <ele>427.432</ele>
        <time>2018-12-28T15:35:59Z</time>
      </trkpt>
      <trkpt lat="36.180600" lon="-117.311350">
        <ele>431.780</ele>
        <time>2018-12-28T15:36:19Z</time>
      </trkpt>
      <trkpt lat="36.180800" lon="-117.311530">
        <ele>432.275</ele>
        <time>2018-12-28T15:36:39Z</time>
      </trkpt>
      <trkpt lat="36.181030" lon="-117.311740">
        <ele>432.745</ele>
        <time>2018-12-28T15:36:59Z</time>
      </trkpt>
      <trkpt lat="36.181180" lon="-117.311920">
        <ele>433.059</ele>
        <time>2018-12-28T15:37:19Z</time>
      </trkpt>
      <trkpt lat="36.181450" lon="-117.312310">
        <ele>433.233</ele>
        <time>2018-12-28T15:37:39Z</time>
      </trkpt>
      <trkpt lat="36.182210" lon="-117.313520">
        <ele>434.752</ele>
        <time>2018-12-28T15:37:59Z</time>
      </trkpt>
      <trkpt lat="36.182990" lon="-117.314870">
        <ele>435.167</ele>
        <time>2018-12-28T15:38:19Z</time>
      </trkpt>
      <trkpt lat="36.183530" lon="-117.315880">
        <ele>434.837</ele>
        <time>2018-12-28T15:38:39Z</time>
      </trkpt>
      <trkpt lat="36.184950" lon="-117.318420">
        <ele>441.149</ele>
        <time>2018-12-28T15:38:59Z</time>
      </trkpt>
      <trkpt lat="36.185990" lon="-117.320290">
        <ele>445.513</ele>
        <time>2018-12-28T15:39:19Z</time>
      </trkpt>
      <trkpt lat="36.186720" lon="-117.321590">
        <ele>449.608</ele>
        <time>2018-12-28T15:39:39Z</time>
      </trkpt>
      <trkpt lat="36.187490" lon="-117.322950">
        <ele>453.046</ele>
        <time>2018-12-28T15:39:59Z</time>
      </trkpt>
      <trkpt lat="36.188080" lon="-117.324050">
        <ele>455.834</ele>
        <time>2018-12-28T15:40:19Z</time>
      </trkpt>
      <trkpt lat="36.188530" lon="-117.324810">
        <ele>457.159</ele>
        <time>2018-12-28T15:40:39Z</time>
      </trkpt>
      <trkpt lat="36.189010" lon="-117.325550">
        <ele>458.929</ele>
        <time>2018-12-28T15:40:59Z</time>
      </trkpt>
      <trkpt lat="36.189190" lon="-117.325780">
        <ele>459.913</ele>
        <time>2018-12-28T15:41:19Z</time>
      </trkpt>
      <trkpt lat="36.189610" lon="-117.326290">
        <ele>462.097</ele>
        <time>2018-12-28T15:41:39Z</time>
      </trkpt>
      <trkpt lat="36.189960" lon="-117.326680">
        <ele>462.896</ele>
        <time>2018-12-28T15:41:59Z</time>
      </trkpt>
      <trkpt lat="36.190180" lon="-117.326890">
        <ele>463.331</ele>
        <time>2018-12-28T15:42:19Z</time>
      </trkpt>
      <trkpt lat="36.190520" lon="-117.327190">
        <ele>464.172</ele>
        <time>2018-12-28T15:42:39Z</time>
      </trkpt>
      <trkpt lat="36.190900" lon="-117.327510">
        <ele>465.613</ele>
        <time>2018-12-28T15:42:59Z</time>
      </trkpt>
      <trkpt lat="36.191790" lon="-117.328160">
        <ele>468.814</ele>
        <time>2018-12-28T15:43:19Z</time>
      </trkpt>
      <trkpt lat="36.192400" lon="-117.328630">
        <ele>470.008</ele>
        <time>2018-12-28T15:43:39Z</time>
      </trkpt>
      <trkpt lat="36.193620" lon="-117.329570">
        <ele>473.090</ele>
        <time>2018-12-28T15:43:59Z</time>
      </trkpt>
      <trkpt lat="36.194330" lon="-117.330100">
        <ele>474.168</ele>
        <time>2018-12-28T15:44:19Z</time>
      </trkpt>
      <trkpt lat="36.194850" lon="-117.330480">
        <ele>474.813</ele>
        <time>2018-12-28T15:44:39Z</time>
      </trkpt>
      <trkpt lat="36.195050" lon="-117.330610">
        <ele>475.013</ele>
        <time>2018-12-28T15:44:59Z</time>
      </trkpt>
      <trkpt lat="36.195280" lon="-117.330760">
        <ele>475.327</ele>
        <time>2018-12-28T15:45:19Z</time>
      </trkpt>
      <trkpt lat="36.195840" lon="-117.331110">
        <ele>475.981</ele>
        <time>2018-12-28T15:45:39Z</time>
      </trkpt>
      <trkpt lat="36.197620" lon="-117.332200">
        <ele>479.860</ele>
        <time>2018-12-28T15:45:59Z</time>
      </trkpt>
      <trkpt lat="36.198890" lon="-117.332980">
        <ele>481.725</ele>
        <time>2018-12-28T15:46:19Z</time>
      </trkpt>
      <trkpt lat="36.201310" lon="-117.334480">
        <ele>485.893</ele>
        <time>2018-12-28T15:46:39Z</time>
      </trkpt>
      <trkpt lat="36.202530" lon="-117.335250">
        <ele>487.365</ele>
        <time>2018-12-28T15:46:59Z</time>
      </trkpt>
      <trkpt lat="36.203340" lon="-117.335720">
        <ele>488.121</ele>
        <time>2018-12-28T15:47:19Z</time>
      </trkpt>
      <trkpt lat="36.203990" lon="-117.336040">
        <ele>489.108</ele>
        <time>2018-12-28T15:47:39Z</time>
      </trkpt>
      <trkpt lat="36.204390" lon="-117.336210">
        <ele>489.882</ele>
        <time>2018-12-28T15:47:59Z</time>
      </trkpt>
      <trkpt lat="36.207410" lon="-117.337600">
        <ele>493.670</ele>
        <time>2018-12-28T15:48:19Z</time>
      </trkpt>
      <trkpt lat="36.208510" lon="-117.338100">
        <ele>494.865</ele>
        <time>2018-12-28T15:48:39Z</time>
      </trkpt>
      <trkpt lat="36.209540" lon="-117.338590">
        <ele>498.645</ele>
        <time>2018-12-28T15:48:59Z</time>
      </trkpt>
      <trkpt lat="36.210430" lon="-117.338920">
        <ele>499.829</ele>
        <time>2018-12-28T15:49:19Z</time>
      </trkpt>
      <trkpt lat="36.211790" lon="-117.339220">
        <ele>500.733</ele>
        <time>2018-12-28T15:49:39Z</time>
      </trkpt>
      <trkpt lat="36.213930" lon="-117.339720">
        <ele>504.642</ele>
        <time>2018-12-28T15:49:59Z</time>
      </trkpt>
      <trkpt lat="36.214660" lon="-117.339880">
        <ele>504.917</ele>
        <time>2018-12-28T15:50:19Z</time>
      </trkpt>
      <trkpt lat="36.216830" lon="-117.340400">
        <ele>507.818</ele>
        <time>2018-12-28T15:50:39Z</time>
      </trkpt>
      <trkpt lat="36.218950" lon="-117.340880">
        <ele>510.798</ele>
        <time>2018-12-28T15:50:59Z</time>
      </trkpt>
      <trkpt lat="36.220980" lon="-117.341330">
        <ele>523.717</ele>
        <time>2018-12-28T15:51:19Z</time>
      </trkpt>
      <trkpt lat="36.221380" lon="-117.341450">
        <ele>525.308</ele>
        <time>2018-12-28T15:51:39Z</time>
      </trkpt>
      <trkpt lat="36.221790" lon="-117.341580">
        <ele>527.084</ele>
        <time>2018-12-28T15:51:59Z</time>
      </trkpt>
      <trkpt lat="36.222080" lon="-117.341690">
        <ele>527.652</ele>
        <time>2018-12-28T15:52:19Z</time>
      </trkpt>
      <trkpt lat="36.222370" lon="-117.341830">
        <ele>527.887</ele>
        <time>2018-12-28T15:52:39Z</time>
      </trkpt>
      <trkpt lat="36.222920" lon="-117.342100">
        <ele>527.917</ele>
        <time>2018-12-28T15:52:59Z</time>
      </trkpt>
      <trkpt lat="36.223820" lon="-117.342570">
        <ele>526.321</ele>
        <time>2018-12-28T15:53:19Z</time>
      </trkpt>
      <trkpt lat="36.225900" lon="-117.343630">
        <ele>522.745</ele>
        <time>2018-12-28T15:53:39Z</time>
      </trkpt>
      <trkpt lat="36.226670" lon="-117.344040">
        <ele>518.354</ele>
        <time>2018-12-28T15:53:59Z</time>
      </trkpt>
      <trkpt lat="36.228130" lon="-117.344820">
        <ele>518.449</ele>
        <time>2018-12-28T15:54:19Z</time>
      </trkpt>
      <trkpt lat="36.229790" lon="-117.345660">
        <ele>524.092</ele>
        <time>2018-12-28T15:54:39Z</time>
      </trkpt>
      <trkpt lat="36.231500" lon="-117.346540">
        <ele>521.973</ele>
        <time>2018-12-28T15:54:59Z</time>
      </trkpt>
      <trkpt lat="36.233970" lon="-117.347800">
        <ele>533.920</ele>
        <time>2018-12-28T15:55:19Z</time>
      </trkpt>
      <trkpt lat="36.234160" lon="-117.347880">
        <ele>534.608</ele>
        <time>2018-12-28T15:55:39Z</time>
      </trkpt>
      <trkpt lat="36.235380" lon="-117.348300">
        <ele>536.752</ele>
        <time>2018-12-28T15:55:59Z</time>
      </trkpt>
      <trkpt lat="36.236140" lon="-117.348560">
        <ele>538.160</ele>
        <time>2018-12-28T15:56:19Z</time>
      </trkpt>
      <trkpt lat="36.238620" lon="-117.349380">
        <ele>542.735</ele>
        <time>2018-12-28T15:56:39Z</time>
      </trkpt>
      <trkpt lat="36.240320" lon="-117.349940">
        <ele>536.385</ele>
        <time>2018-12-28T15:56:59Z</time>
      </trkpt>
      <trkpt lat="36.245710" lon="-117.351740">
        <ele>528.339</ele>
        <time>2018-12-28T15:57:19Z</time>
      </trkpt>
      <trkpt lat="36.248560" lon="-117.352700">
        <ele>520.143</ele>
        <time>2018-12-28T15:57:39Z</time>
      </trkpt>
      <trkpt lat="36.249020" lon="-117.352850">
        <ele>519.282</ele>
        <time>2018-12-28T15:57:59Z</time>
      </trkpt>
      <trkpt lat="36.249810" lon="-117.353110">
        <ele>518.487</ele>
        <time>2018-12-28T15:58:19Z</time>
      </trkpt>
      <trkpt lat="36.255250" lon="-117.354920">
        <ele>513.283</ele>
        <time>2018-12-28T15:58:39Z</time>
      </trkpt>
      <trkpt lat="36.257060" lon="-117.355540">
        <ele>510.525</ele>
        <time>2018-12-28T15:58:59Z</time>
      </trkpt>
      <trkpt lat="36.262290" lon="-117.357270">
        <ele>502.417</ele>
        <time>2018-12-28T15:59:19Z</time>
      </trkpt>
      <trkpt lat="36.262900" lon="-117.357480">
        <ele>501.408</ele>
        <time>2018-12-28T15:59:39Z</time>
      </trkpt>
      <trkpt lat="36.263490" lon="-117.357670">
        <ele>501.091</ele>
        <time>2018-12-28T15:59:59Z</time>
      </trkpt>
      <trkpt lat="36.263760" lon="-117.357770">
        <ele>500.699</ele>
        <time>2018-12-28T16:00:19Z</time>
      </trkpt>
      <trkpt lat="36.264020" lon="-117.357860">
        <ele>500.164</ele>
        <time>2018-12-28T16:00:39Z</time>
      </trkpt>
      <trkpt lat="36.264320" lon="-117.357990">
        <ele>499.764</ele>
        <time>2018-12-28T16:00:59Z</time>
      </trkpt>
      <trkpt lat="36.264600" lon="-117.358110">
        <ele>499.348</ele>
        <time>2018-12-28T16:01:19Z</time>
      </trkpt>
      <trkpt lat="36.264810" lon="-117.358220">
        <ele>499.082</ele>
        <time>2018-12-28T16:01:39Z</time>
      </trkpt>
      <trkpt lat="36.265060" lon="-117.358360">
        <ele>498.781</ele>
        <time>2018-12-28T16:01:59Z</time>
      </trkpt>
      <trkpt lat="36.265250" lon="-117.358480">
        <ele>498.526</ele>
        <time>2018-12-28T16:02:19Z</time>
      </trkpt>
      <trkpt lat="36.265480" lon="-117.358630">
        <ele>498.217</ele>
        <time>2018-12-28T16:02:39Z</time>
      </trkpt>
      <trkpt lat="36.265640" lon="-117.358740">
        <ele>498.187</ele>
        <time>2018-12-28T16:02:59Z</time>
      </trkpt>
      <trkpt lat="36.265780" lon="-117.358830">
        <ele>497.915</ele>
        <time>2018-12-28T16:03:19Z</time>
      </trkpt>
      <trkpt lat="36.265980" lon="-117.358980">
        <ele>497.708</ele>
        <time>2018-12-28T16:03:39Z</time>
      </trkpt>
      <trkpt lat="36.266100" lon="-117.359080">
        <ele>497.654</ele>
        <time>2018-12-28T16:03:59Z</time>
      </trkpt>
      <trkpt lat="36.266440" lon="-117.359370">
        <ele>497.262</ele>
        <time>2018-12-28T16:04:19Z</time>
      </trkpt>
      <trkpt lat="36.268740" lon="-117.361440">
        <ele>495.637</ele>
        <time>2018-12-28T16:04:39Z</time>
      </trkpt>
      <trkpt lat="36.271780" lon="-117.364180">
        <ele>493.977</ele>
        <time>2018-12-28T16:04:59Z</time>
      </trkpt>
      <trkpt lat="36.274320" lon="-117.366460">
        <ele>492.591</ele>
        <time>2018-12-28T16:05:19Z</time>
      </trkpt>
      <trkpt lat="36.276770" lon="-117.368670">
        <ele>491.325</ele>
        <time>2018-12-28T16:05:39Z</time>
      </trkpt>
      <trkpt lat="36.278800" lon="-117.370490">
        <ele>490.744</ele>
        <time>2018-12-28T16:05:59Z</time>
      </trkpt>
      <trkpt lat="36.280230" lon="-117.371770">
        <ele>489.849</ele>
        <time>2018-12-28T16:06:19Z</time>
      </trkpt>
      <trkpt lat="36.281360" lon="-117.372780">
        <ele>488.584</ele>
        <time>2018-12-28T16:06:39Z</time>
      </trkpt>
      <trkpt lat="36.282610" lon="-117.373910">
        <ele>487.307</ele>
        <time>2018-12-28T16:06:59Z</time>
      </trkpt>
      <trkpt lat="36.283750" lon="-117.374930">
        <ele>486.717</ele>
        <time>2018-12-28T16:07:19Z</time>
      </trkpt>
      <trkpt lat="36.286000" lon="-117.376960">
        <ele>487.108</ele>
        <time>2018-12-28T16:07:39Z</time>
      </trkpt>
      <trkpt lat="36.289200" lon="-117.379950">
        <ele>484.991</ele>
        <time>2018-12-28T16:07:59Z</time>
      </trkpt>
      <trkpt lat="36.290800" lon="-117.381450">
        <ele>482.089</ele>
        <time>2018-12-28T16:08:19Z</time>
      </trkpt>
      <trkpt lat="36.294370" lon="-117.384810">
        <ele>476.774</ele>
        <time>2018-12-28T16:08:39Z</time>
      </trkpt>
      <trkpt lat="36.301100" lon="-117.391120">
        <ele>474.724</ele>
        <time>2018-12-28T16:08:59Z</time>
      </trkpt>
      <trkpt lat="36.303390" lon="-117.393250">
        <ele>473.498</ele>
        <time>2018-12-28T16:09:19Z</time>
      </trkpt>
      <trkpt lat="36.305040" lon="-117.394810">
        <ele>473.812</ele>
        <time>2018-12-28T16:09:39Z</time>
      </trkpt>
      <trkpt lat="36.307020" lon="-117.396670">
        <ele>473.451</ele>
        <time>2018-12-28T16:09:59Z</time>
      </trkpt>
      <trkpt lat="36.307420" lon="-117.397040">
        <ele>473.436</ele>
        <time>2018-12-28T16:10:19Z</time>
      </trkpt>
      <trkpt lat="36.307660" lon="-117.397240">
        <ele>473.438</ele>
        <time>2018-12-28T16:10:39Z</time>
      </trkpt>
      <trkpt lat="36.310560" lon="-117.399640">
        <ele>472.370</ele>
        <time>2018-12-28T16:10:59Z</time>
      </trkpt>
      <trkpt lat="36.313600" lon="-117.402180">
        <ele>472.117</ele>
        <time>2018-12-28T16:11:19Z</time>
      </trkpt>
      <trkpt lat="36.316110" lon="-117.404240">
        <ele>471.708</ele>
        <time>2018-12-28T16:11:39Z</time>
      </trkpt>
      <trkpt lat="36.318740" lon="-117.406430">
        <ele>471.116</ele>
        <time>2018-12-28T16:11:59Z</time>
      </trkpt>
      <trkpt lat="36.319500" lon="-117.407050">
        <ele>470.834</ele>
        <time>2018-12-28T16:12:19Z</time>
      </trkpt>
      <trkpt lat="36.322510" lon="-117.409540">
        <ele>470.659</ele>
        <time>2018-12-28T16:12:39Z</time>
      </trkpt>
      <trkpt lat="36.325120" lon="-117.411720">
        <ele>471.589</ele>
        <time>2018-12-28T16:12:59Z</time>
      </trkpt>
      <trkpt lat="36.326760" lon="-117.413080">
        <ele>472.753</ele>
        <time>2018-12-28T16:13:19Z</time>
      </trkpt>
      <trkpt lat="36.327640" lon="-117.413810">
        <ele>473.497</ele>
        <time>2018-12-28T16:13:39Z</time>
      </trkpt>
      <trkpt lat="36.329890" lon="-117.415690">
        <ele>473.466</ele>
        <time>2018-12-28T16:13:59Z</time>
      </trkpt>
      <trkpt lat="36.336140" lon="-117.420870">
        <ele>476.851</ele>
        <time>2018-12-28T16:14:19Z</time>
      </trkpt>
      <trkpt lat="36.339170" lon="-117.423410">
        <ele>479.914</ele>
        <time>2018-12-28T16:14:39Z</time>
      </trkpt>
      <trkpt lat="36.339310" lon="-117.423520">
        <ele>480.054</ele>
        <time>2018-12-28T16:14:59Z</time>
      </trkpt>
      <trkpt lat="36.339430" lon="-117.423620">
        <ele>480.209</ele>
        <time>2018-12-28T16:15:19Z</time>
      </trkpt>
      <trkpt lat="36.339440" lon="-117.423630">
        <ele>480.208</ele>
        <time>2018-12-28T16:15:39Z</time>
      </trkpt>
      <trkpt lat="36.339460" lon="-117.423630">
        <ele>480.244</ele>
        <time>2018-12-28T16:15:59Z</time>
      </trkpt>
      <trkpt lat="36.339510" lon="-117.423640">
        <ele>480.262</ele>
        <time>2018-12-28T16:16:19Z</time>
      </trkpt>
      <trkpt lat="36.339512" lon="-117.423637">
        <ele>480.227</ele>
        <time>2018-12-28T16:16:39Z</time>
      </trkpt>
      <trkpt lat="36.339530" lon="-117.423430">
        <ele>480.137</ele>
        <time>2018-12-28T16:16:59Z</time>
      </trkpt>
      <trkpt lat="36.339610" lon="-117.422230">
        <ele>479.191</ele>
        <time>2018-12-28T16:17:19Z</time>
      </trkpt>
      <trkpt lat="36.339830" lon="-117.419110">
        <ele>476.855</ele>
        <time>2018-12-28T16:17:39Z</time>
      </trkpt>
      <trkpt lat="36.340740" lon="-117.406030">
        <ele>470.394</ele>
        <time>2018-12-28T16:17:59Z</time>
      </trkpt>
      <trkpt lat="36.340840" lon="-117.404510">
        <ele>470.339</ele>
        <time>2018-12-28T16:18:19Z</time>
      </trkpt>
      <trkpt lat="36.340930" lon="-117.403190">
        <ele>470.369</ele>
        <time>2018-12-28T16:18:39Z</time>
      </trkpt>
      <trkpt lat="36.341090" lon="-117.400820">
        <ele>470.304</ele>
        <time>2018-12-28T16:18:59Z</time>
      </trkpt>
      <trkpt lat="36.341560" lon="-117.393990">
        <ele>470.424</ele>
        <time>2018-12-28T16:19:19Z</time>
      </trkpt>
      <trkpt lat="36.341650" lon="-117.392740">
        <ele>471.308</ele>
        <time>2018-12-28T16:19:39Z</time>
      </trkpt>
      <trkpt lat="36.341920" lon="-117.388780">
        <ele>475.529</ele>
        <time>2018-12-28T16:19:59Z</time>
      </trkpt>
      <trkpt lat="36.341940" lon="-117.388540">
        <ele>475.997</ele>
        <time>2018-12-28T16:20:19Z</time>
      </trkpt>
      <trkpt lat="36.342080" lon="-117.386400">
        <ele>481.132</ele>
        <time>2018-12-28T16:20:39Z</time>
      </trkpt>
      <trkpt lat="36.342150" lon="-117.385450">
        <ele>483.882</ele>
        <time>2018-12-28T16:20:59Z</time>
      </trkpt>
      <trkpt lat="36.342250" lon="-117.384020">
        <ele>487.946</ele>
        <time>2018-12-28T16:21:19Z</time>
      </trkpt>
      <trkpt lat="36.342330" lon="-117.382760">
        <ele>491.980</ele>
        <time>2018-12-28T16:21:39Z</time>
      </trkpt>
      <trkpt lat="36.342560" lon="-117.379550">
        <ele>501.949</ele>
        <time>2018-12-28T16:21:59Z</time>
      </trkpt>
      <trkpt lat="36.342640" lon="-117.378270">
        <ele>506.474</ele>
        <time>2018-12-28T16:22:19Z</time>
      </trkpt>
      <trkpt lat="36.342800" lon="-117.375930">
        <ele>514.375</ele>
        <time>2018-12-28T16:22:39Z</time>
      </trkpt>
      <trkpt lat="36.342800" lon="-117.375870">
        <ele>514.528</ele>
        <time>2018-12-28T16:22:59Z</time>
      </trkpt>
      <trkpt lat="36.342870" lon="-117.375000">
        <ele>518.520</ele>
        <time>2018-12-28T16:23:19Z</time>
      </trkpt>
      <trkpt lat="36.342930" lon="-117.374060">
        <ele>522.508</ele>
        <time>2018-12-28T16:23:39Z</time>
      </trkpt>
      <trkpt lat="36.343010" lon="-117.372890">
        <ele>527.680</ele>
        <time>2018-12-28T16:23:59Z</time>
      </trkpt>
      <trkpt lat="36.343100" lon="-117.371540">
        <ele>533.118</ele>
        <time>2018-12-28T16:24:19Z</time>
      </trkpt>
      <trkpt lat="36.343320" lon="-117.368530">
        <ele>548.623</ele>
        <time>2018-12-28T16:24:39Z</time>
      </trkpt>
      <trkpt lat="36.343530" lon="-117.365530">
        <ele>560.173</ele>
        <time>2018-12-28T16:24:59Z</time>
      </trkpt>
      <trkpt lat="36.343600" lon="-117.364500">
        <ele>565.817</ele>
        <time>2018-12-28T16:25:19Z</time>
      </trkpt>
      <trkpt lat="36.343650" lon="-117.363690">
        <ele>569.781</ele>
        <time>2018-12-28T16:25:39Z</time>
      </trkpt>
      <trkpt lat="36.343700" lon="-117.363030">
        <ele>573.450</ele>
        <time>2018-12-28T16:25:59Z</time>
      </trkpt>
      <trkpt lat="36.343780" lon="-117.361790">
        <ele>579.595</ele>
        <time>2018-12-28T16:26:19Z</time>
      </trkpt>
      <trkpt lat="36.343810" lon="-117.361310">
        <ele>581.971</ele>
        <time>2018-12-28T16:26:39Z</time>
      </trkpt>
      <trkpt lat="36.343860" lon="-117.360580">
        <ele>585.141</ele>
        <time>2018-12-28T16:26:59Z</time>
      </trkpt>
      <trkpt lat="36.343900" lon="-117.360000">
        <ele>587.815</ele>
        <time>2018-12-28T16:27:19Z</time>
      </trkpt>
      <trkpt lat="36.343960" lon="-117.359280">
        <ele>592.008</ele>
        <time>2018-12-28T16:27:39Z</time>
      </trkpt>
      <trkpt lat="36.343990" lon="-117.358930">
        <ele>594.250</ele>
        <time>2018-12-28T16:27:59Z</time>
      </trkpt>
      <trkpt lat="36.344010" lon="-117.358820">
        <ele>594.998</ele>
        <time>2018-12-28T16:28:19Z</time>
      </trkpt>
      <trkpt lat="36.344040" lon="-117.358660">
        <ele>595.893</ele>
        <time>2018-12-28T16:28:39Z</time>
      </trkpt>
      <trkpt lat="36.344110" lon="-117.358320">
        <ele>597.753</ele>
        <time>2018-12-28T16:28:59Z</time>
      </trkpt>
      <trkpt lat="36.344420" lon="-117.356940">
        <ele>607.717</ele>
        <time>2018-12-28T16:29:19Z</time>
      </trkpt>
      <trkpt lat="36.344560" lon="-117.356280">
        <ele>612.191</ele>
        <time>2018-12-28T16:29:39Z</time>
      </trkpt>
      <trkpt lat="36.344730" lon="-117.355490">
        <ele>616.180</ele>
        <time>2018-12-28T16:29:59Z</time>
      </trkpt>
      <trkpt lat="36.344880" lon="-117.354880">
        <ele>620.535</ele>
        <time>2018-12-28T16:30:19Z</time>
      </trkpt>
      <trkpt lat="36.344980" lon="-117.354440">
        <ele>623.431</ele>
        <time>2018-12-28T16:30:39Z</time>
      </trkpt>
      <trkpt lat="36.345010" lon="-117.354250">
        <ele>624.761</ele>
        <time>2018-12-28T16:30:59Z</time>
      </trkpt>
      <trkpt lat="36.345030" lon="-117.354100">
        <ele>625.807</ele>
        <time>2018-12-28T16:31:19Z</time>
      </trkpt>
      <trkpt lat="36.345050" lon="-117.353950">
        <ele>626.908</ele>
        <time>2018-12-28T16:31:39Z</time>
      </trkpt>
      <trkpt lat="36.345070" lon="-117.353790">
        <ele>628.016</ele>
        <time>2018-12-28T16:31:59Z</time>
      </trkpt>
      <trkpt lat="36.345080" lon="-117.353640">
        <ele>629.344</ele>
        <time>2018-12-28T16:32:19Z</time>
      </trkpt>
      <trkpt lat="36.345090" lon="-117.353480">
        <ele>630.739</ele>
        <time>2018-12-28T16:32:39Z</time>
      </trkpt>
      <trkpt lat="36.345090" lon="-117.353330">
        <ele>631.999</ele>
        <time>2018-12-28T16:32:59Z</time>
      </trkpt>
      <trkpt lat="36.345090" lon="-117.353170">
        <ele>633.233</ele>
        <time>2018-12-28T16:33:19Z</time>
      </trkpt>
      <trkpt lat="36.345080" lon="-117.353010">
        <ele>634.597</ele>
        <time>2018-12-28T16:33:39Z</time>
      </trkpt>
      <trkpt lat="36.345070" lon="-117.352860">
        <ele>635.566</ele>
        <time>2018-12-28T16:33:59Z</time>
      </trkpt>
      <trkpt lat="36.345060" lon="-117.352770">
        <ele>636.081</ele>
        <time>2018-12-28T16:34:19Z</time>
      </trkpt>
      <trkpt lat="36.345050" lon="-117.352680">
        <ele>636.587</ele>
        <time>2018-12-28T16:34:39Z</time>
      </trkpt>
      <trkpt lat="36.345040" lon="-117.352600">
        <ele>636.942</ele>
        <time>2018-12-28T16:34:59Z</time>
      </trkpt>
      <trkpt lat="36.345030" lon="-117.352510">
        <ele>637.426</ele>
        <time>2018-12-28T16:35:19Z</time>
      </trkpt>
      <trkpt lat="36.345020" lon="-117.352430">
        <ele>637.808</ele>
        <time>2018-12-28T16:35:39Z</time>
      </trkpt>
      <trkpt lat="36.345000" lon="-117.352340">
        <ele>638.391</ele>
        <time>2018-12-28T16:35:59Z</time>
      </trkpt>
      <trkpt lat="36.344980" lon="-117.352260">
        <ele>638.839</ele>
        <time>2018-12-28T16:36:19Z</time>
      </trkpt>
      <trkpt lat="36.344970" lon="-117.352170">
        <ele>639.474</ele>
        <time>2018-12-28T16:36:39Z</time>
      </trkpt>
      <trkpt lat="36.344790" lon="-117.351200">
        <ele>646.744</ele>
        <time>2018-12-28T16:36:59Z</time>
      </trkpt>
      <trkpt lat="36.344770" lon="-117.351120">
        <ele>647.238</ele>
        <time>2018-12-28T16:37:19Z</time>
      </trkpt>
      <trkpt lat="36.344750" lon="-117.351030">
        <ele>647.942</ele>
        <time>2018-12-28T16:37:39Z</time>
      </trkpt>
      <trkpt lat="36.344740" lon="-117.350950">
        <ele>648.471</ele>
        <time>2018-12-28T16:37:59Z</time>
      </trkpt>
      <trkpt lat="36.344720" lon="-117.350870">
        <ele>648.876</ele>
        <time>2018-12-28T16:38:19Z</time>
      </trkpt>
      <trkpt lat="36.344710" lon="-117.350780">
        <ele>649.436</ele>
        <time>2018-12-28T16:38:39Z</time>
      </trkpt>
      <trkpt lat="36.344700" lon="-117.350700">
        <ele>649.817</ele>
        <time>2018-12-28T16:38:59Z</time>
      </trkpt>
      <trkpt lat="36.344680" lon="-117.350620">
        <ele>650.218</ele>
        <time>2018-12-28T16:39:19Z</time>
      </trkpt>
      <trkpt lat="36.344670" lon="-117.350530">
        <ele>650.708</ele>
        <time>2018-12-28T16:39:39Z</time>
      </trkpt>
      <trkpt lat="36.344660" lon="-117.350420">
        <ele>651.346</ele>
        <time>2018-12-28T16:39:59Z</time>
      </trkpt>
      <trkpt lat="36.344650" lon="-117.350310">
        <ele>652.034</ele>
        <time>2018-12-28T16:40:19Z</time>
      </trkpt>
      <trkpt lat="36.344640" lon="-117.350200">
        <ele>652.629</ele>
        <time>2018-12-28T16:40:39Z</time>
      </trkpt>
      <trkpt lat="36.344630" lon="-117.350090">
        <ele>653.349</ele>
        <time>2018-12-28T16:40:59Z</time>
      </trkpt>
      <trkpt lat="36.344620" lon="-117.349970">
        <ele>654.113</ele>
        <time>2018-12-28T16:41:19Z</time>
      </trkpt>
      <trkpt lat="36.344620" lon="-117.349860">
        <ele>654.937</ele>
        <time>2018-12-28T16:41:39Z</time>
      </trkpt>
      <trkpt lat="36.344610" lon="-117.349750">
        <ele>655.726</ele>
        <time>2018-12-28T16:41:59Z</time>
      </trkpt>
      <trkpt lat="36.344610" lon="-117.349640">
        <ele>656.511</ele>
        <time>2018-12-28T16:42:19Z</time>
      </trkpt>
      <trkpt lat="36.344610" lon="-117.349520">
        <ele>657.428</ele>
        <time>2018-12-28T16:42:39Z</time>
      </trkpt>
      <trkpt lat="36.344620" lon="-117.349400">
        <ele>658.489</ele>
        <time>2018-12-28T16:42:59Z</time>
      </trkpt>
      <trkpt lat="36.344620" lon="-117.349290">
        <ele>659.317</ele>
        <time>2018-12-28T16:43:19Z</time>
      </trkpt>
      <trkpt lat="36.344630" lon="-117.349170">
        <ele>661.108</ele>
        <time>2018-12-28T16:43:39Z</time>
      </trkpt>
      <trkpt lat="36.344640" lon="-117.349060">
        <ele>662.995</ele>
        <time>2018-12-28T16:43:59Z</time>
      </trkpt>
      <trkpt lat="36.344660" lon="-117.348940">
        <ele>664.853</ele>
        <time>2018-12-28T16:44:19Z</time>
      </trkpt>
      <trkpt lat="36.344670" lon="-117.348830">
        <ele>666.478</ele>
        <time>2018-12-28T16:44:39Z</time>
      </trkpt>
      <trkpt lat="36.344690" lon="-117.348710">
        <ele>668.168</ele>
        <time>2018-12-28T16:44:59Z</time>
      </trkpt>
      <trkpt lat="36.344700" lon="-117.348650">
        <ele>668.732</ele>
        <time>2018-12-28T16:45:19Z</time>
      </trkpt>
      <trkpt lat="36.344720" lon="-117.348590">
        <ele>669.436</ele>
        <time>2018-12-28T16:45:39Z</time>
      </trkpt>
      <trkpt lat="36.344730" lon="-117.348530">
        <ele>669.885</ele>
        <time>2018-12-28T16:45:59Z</time>
      </trkpt>
      <trkpt lat="36.344740" lon="-117.348470">
        <ele>670.390</ele>
        <time>2018-12-28T16:46:19Z</time>
      </trkpt>
      <trkpt lat="36.344760" lon="-117.348410">
        <ele>670.936</ele>
        <time>2018-12-28T16:46:39Z</time>
      </trkpt>
      <trkpt lat="36.344770" lon="-117.348350">
        <ele>671.417</ele>
        <time>2018-12-28T16:46:59Z</time>
      </trkpt>
      <trkpt lat="36.344780" lon="-117.348290">
        <ele>672.018</ele>
        <time>2018-12-28T16:47:19Z</time>
      </trkpt>
      <trkpt lat="36.344800" lon="-117.348230">
        <ele>672.708</ele>
        <time>2018-12-28T16:47:39Z</time>
      </trkpt>
      <trkpt lat="36.344820" lon="-117.348120">
        <ele>673.436</ele>
        <time>2018-12-28T16:47:59Z</time>
      </trkpt>
      <trkpt lat="36.344850" lon="-117.348020">
        <ele>673.844</ele>
        <time>2018-12-28T16:48:19Z</time>
      </trkpt>
      <trkpt lat="36.344880" lon="-117.347910">
        <ele>674.479</ele>
        <time>2018-12-28T16:48:39Z</time>
      </trkpt>
      <trkpt lat="36.344910" lon="-117.347800">
        <ele>674.999</ele>
        <time>2018-12-28T16:48:59Z</time>
      </trkpt>
      <trkpt lat="36.344940" lon="-117.347690">
        <ele>675.453</ele>
        <time>2018-12-28T16:49:19Z</time>
      </trkpt>
      <trkpt lat="36.344970" lon="-117.347580">
        <ele>675.937</ele>
        <time>2018-12-28T16:49:39Z</time>
      </trkpt>
      <trkpt lat="36.345000" lon="-117.347480">
        <ele>676.556</ele>
        <time>2018-12-28T16:49:59Z</time>
      </trkpt>
      <trkpt lat="36.345030" lon="-117.347370">
        <ele>676.791</ele>
        <time>2018-12-28T16:50:19Z</time>
      </trkpt>
      <trkpt lat="36.345050" lon="-117.347280">
        <ele>677.171</ele>
        <time>2018-12-28T16:50:39Z</time>
      </trkpt>
      <trkpt lat="36.345100" lon="-117.347110">
        <ele>677.641</ele>
        <time>2018-12-28T16:50:59Z</time>
      </trkpt>
      <trkpt lat="36.345300" lon="-117.346370">
        <ele>683.915</ele>
        <time>2018-12-28T16:51:19Z</time>
      </trkpt>
      <trkpt lat="36.345530" lon="-117.345440">
        <ele>689.408</ele>
        <time>2018-12-28T16:51:39Z</time>
      </trkpt>
      <trkpt lat="36.345720" lon="-117.344620">
        <ele>693.080</ele>
        <time>2018-12-28T16:51:59Z</time>
      </trkpt>
      <trkpt lat="36.345820" lon="-117.344140">
        <ele>694.858</ele>
        <time>2018-12-28T16:52:19Z</time>
      </trkpt>
      <trkpt lat="36.345850" lon="-117.344040">
        <ele>695.223</ele>
        <time>2018-12-28T16:52:39Z</time>
      </trkpt>
      <trkpt lat="36.345900" lon="-117.343810">
        <ele>696.423</ele>
        <time>2018-12-28T16:52:59Z</time>
      </trkpt>
      <trkpt lat="36.345950" lon="-117.343510">
        <ele>698.787</ele>
        <time>2018-12-28T16:53:19Z</time>
      </trkpt>
      <trkpt lat="36.346000" lon="-117.343310">
        <ele>700.361</ele>
        <time>2018-12-28T16:53:39Z</time>
      </trkpt>
      <trkpt lat="36.346030" lon="-117.343140">
        <ele>701.690</ele>
        <time>2018-12-28T16:53:59Z</time>
      </trkpt>
      <trkpt lat="36.346040" lon="-117.343080">
        <ele>702.065</ele>
        <time>2018-12-28T16:54:19Z</time>
      </trkpt>
      <trkpt lat="36.346060" lon="-117.343020">
        <ele>702.416</ele>
        <time>2018-12-28T16:54:39Z</time>
      </trkpt>
      <trkpt lat="36.346070" lon="-117.342960">
        <ele>702.876</ele>
        <time>2018-12-28T16:54:59Z</time>
      </trkpt>
      <trkpt lat="36.346080" lon="-117.342900">
        <ele>703.213</ele>
        <time>2018-12-28T16:55:19Z</time>
      </trkpt>
      <trkpt lat="36.346100" lon="-117.342840">
        <ele>703.508</ele>
        <time>2018-12-28T16:55:39Z</time>
      </trkpt>
      <trkpt lat="36.346110" lon="-117.342780">
        <ele>703.724</ele>
        <time>2018-12-28T16:55:59Z</time>
      </trkpt>
      <trkpt lat="36.346130" lon="-117.342720">
        <ele>704.092</ele>
        <time>2018-12-28T16:56:19Z</time>
      </trkpt>
      <trkpt lat="36.346140" lon="-117.342660">
        <ele>704.387</ele>
        <time>2018-12-28T16:56:39Z</time>
      </trkpt>
      <trkpt lat="36.346160" lon="-117.342600">
        <ele>704.627</ele>
        <time>2018-12-28T16:56:59Z</time>
      </trkpt>
      <trkpt lat="36.346170" lon="-117.342550">
        <ele>704.991</ele>
        <time>2018-12-28T16:57:19Z</time>
      </trkpt>
      <trkpt lat="36.346190" lon="-117.342490">
        <ele>705.295</ele>
        <time>2018-12-28T16:57:39Z</time>
      </trkpt>
      <trkpt lat="36.346200" lon="-117.342430">
        <ele>705.684</ele>
        <time>2018-12-28T16:57:59Z</time>
      </trkpt>
      <trkpt lat="36.346220" lon="-117.342380">
        <ele>705.879</ele>
        <time>2018-12-28T16:58:19Z</time>
      </trkpt>
      <trkpt lat="36.346240" lon="-117.342320">
        <ele>706.237</ele>
        <time>2018-12-28T16:58:39Z</time>
      </trkpt>
      <trkpt lat="36.346260" lon="-117.342270">
        <ele>706.549</ele>
        <time>2018-12-28T16:58:59Z</time>
      </trkpt>
      <trkpt lat="36.346280" lon="-117.342210">
        <ele>706.913</ele>
        <time>2018-12-28T16:59:19Z</time>
      </trkpt>
      <trkpt lat="36.346620" lon="-117.341150">
        <ele>715.808</ele>
        <time>2018-12-28T16:59:39Z</time>
      </trkpt>
      <trkpt lat="36.346770" lon="-117.340650">
        <ele>719.566</ele>
        <time>2018-12-28T16:59:59Z</time>
      </trkpt>
      <trkpt lat="36.346910" lon="-117.340230">
        <ele>722.984</ele>
        <time>2018-12-28T17:00:19Z</time>
      </trkpt>
      <trkpt lat="36.347000" lon="-117.339930">
        <ele>726.259</ele>
        <time>2018-12-28T17:00:39Z</time>
      </trkpt>
      <trkpt lat="36.347090" lon="-117.339670">
        <ele>728.249</ele>
        <time>2018-12-28T17:00:59Z</time>
      </trkpt>
      <trkpt lat="36.347120" lon="-117.339580">
        <ele>728.963</ele>
        <time>2018-12-28T17:01:19Z</time>
      </trkpt>
      <trkpt lat="36.347160" lon="-117.339480">
        <ele>729.527</ele>
        <time>2018-12-28T17:01:39Z</time>
      </trkpt>
      <trkpt lat="36.347200" lon="-117.339390">
        <ele>730.016</ele>
        <time>2018-12-28T17:01:59Z</time>
      </trkpt>
      <trkpt lat="36.347230" lon="-117.339300">
        <ele>730.541</ele>
        <time>2018-12-28T17:02:19Z</time>
      </trkpt>
      <trkpt lat="36.347270" lon="-117.339210">
        <ele>730.963</ele>
        <time>2018-12-28T17:02:39Z</time>
      </trkpt>
      <trkpt lat="36.347310" lon="-117.339120">
        <ele>731.344</ele>
        <time>2018-12-28T17:02:59Z</time>
      </trkpt>
      <trkpt lat="36.347360" lon="-117.339030">
        <ele>731.718</ele>
        <time>2018-12-28T17:03:19Z</time>
      </trkpt>
      <trkpt lat="36.347390" lon="-117.338950">
        <ele>732.608</ele>
        <time>2018-12-28T17:03:39Z</time>
      </trkpt>
      <trkpt lat="36.348060" lon="-117.337680">
        <ele>746.429</ele>
        <time>2018-12-28T17:03:59Z</time>
      </trkpt>
      <trkpt lat="36.348260" lon="-117.337280">
        <ele>749.947</ele>
        <time>2018-12-28T17:04:19Z</time>
      </trkpt>
      <trkpt lat="36.348290" lon="-117.337220">
        <ele>750.392</ele>
        <time>2018-12-28T17:04:39Z</time>
      </trkpt>
      <trkpt lat="36.348310" lon="-117.337170">
        <ele>750.662</ele>
        <time>2018-12-28T17:04:59Z</time>
      </trkpt>
      <trkpt lat="36.348340" lon="-117.337110">
        <ele>750.956</ele>
        <time>2018-12-28T17:05:19Z</time>
      </trkpt>
      <trkpt lat="36.348360" lon="-117.337050">
        <ele>751.340</ele>
        <time>2018-12-28T17:05:39Z</time>
      </trkpt>
      <trkpt lat="36.348390" lon="-117.336990">
        <ele>751.579</ele>
        <time>2018-12-28T17:05:59Z</time>
      </trkpt>
      <trkpt lat="36.348410" lon="-117.336930">
        <ele>751.874</ele>
        <time>2018-12-28T17:06:19Z</time>
      </trkpt>
      <trkpt lat="36.348430" lon="-117.336870">
        <ele>752.117</ele>
        <time>2018-12-28T17:06:39Z</time>
      </trkpt>
      <trkpt lat="36.348460" lon="-117.336810">
        <ele>752.387</ele>
        <time>2018-12-28T17:06:59Z</time>
      </trkpt>
      <trkpt lat="36.348490" lon="-117.336710">
        <ele>752.915</ele>
        <time>2018-12-28T17:07:19Z</time>
      </trkpt>
      <trkpt lat="36.348530" lon="-117.336610">
        <ele>753.408</ele>
        <time>2018-12-28T17:07:39Z</time>
      </trkpt>
      <trkpt lat="36.348560" lon="-117.336500">
        <ele>754.154</ele>
        <time>2018-12-28T17:07:59Z</time>
      </trkpt>
      <trkpt lat="36.348590" lon="-117.336390">
        <ele>754.942</ele>
        <time>2018-12-28T17:08:19Z</time>
      </trkpt>
      <trkpt lat="36.348610" lon="-117.336290">
        <ele>755.857</ele>
        <time>2018-12-28T17:08:39Z</time>
      </trkpt>
      <trkpt lat="36.348640" lon="-117.336180">
        <ele>756.927</ele>
        <time>2018-12-28T17:08:59Z</time>
      </trkpt>
      <trkpt lat="36.348660" lon="-117.336070">
        <ele>757.821</ele>
        <time>2018-12-28T17:09:19Z</time>
      </trkpt>
      <trkpt lat="36.348680" lon="-117.335960">
        <ele>758.565</ele>
        <time>2018-12-28T17:09:39Z</time>
      </trkpt>
      <trkpt lat="36.348690" lon="-117.335880">
        <ele>758.574</ele>
        <time>2018-12-28T17:09:59Z</time>
      </trkpt>
      <trkpt lat="36.348700" lon="-117.335810">
        <ele>758.689</ele>
        <time>2018-12-28T17:10:19Z</time>
      </trkpt>
      <trkpt lat="36.348710" lon="-117.335730">
        <ele>758.686</ele>
        <time>2018-12-28T17:10:39Z</time>
      </trkpt>
      <trkpt lat="36.348720" lon="-117.335660">
        <ele>758.760</ele>
        <time>2018-12-28T17:10:59Z</time>
      </trkpt>
      <trkpt lat="36.348720" lon="-117.335580">
        <ele>759.126</ele>
        <time>2018-12-28T17:11:19Z</time>
      </trkpt>
      <trkpt lat="36.348730" lon="-117.335500">
        <ele>759.508</ele>
        <time>2018-12-28T17:11:39Z</time>
      </trkpt>
      <trkpt lat="36.348730" lon="-117.335430">
        <ele>760.091</ele>
        <time>2018-12-28T17:11:59Z</time>
      </trkpt>
      <trkpt lat="36.348740" lon="-117.335350">
        <ele>760.869</ele>
        <time>2018-12-28T17:12:19Z</time>
      </trkpt>
      <trkpt lat="36.348740" lon="-117.335280">
        <ele>761.724</ele>
        <time>2018-12-28T17:12:39Z</time>
      </trkpt>
      <trkpt lat="36.348740" lon="-117.335200">
        <ele>762.764</ele>
        <time>2018-12-28T17:12:59Z</time>
      </trkpt>
      <trkpt lat="36.348740" lon="-117.335130">
        <ele>763.668</ele>
        <time>2018-12-28T17:13:19Z</time>
      </trkpt>
      <trkpt lat="36.348740" lon="-117.335060">
        <ele>764.612</ele>
        <time>2018-12-28T17:13:39Z</time>
      </trkpt>
      <trkpt lat="36.348730" lon="-117.334990">
        <ele>765.631</ele>
        <time>2018-12-28T17:13:59Z</time>
      </trkpt>
      <trkpt lat="36.348730" lon="-117.334920">
        <ele>766.776</ele>
        <time>2018-12-28T17:14:19Z</time>
      </trkpt>
      <trkpt lat="36.348720" lon="-117.334850">
        <ele>767.649</ele>
        <time>2018-12-28T17:14:39Z</time>
      </trkpt>
      <trkpt lat="36.348720" lon="-117.334780">
        <ele>768.502</ele>
        <time>2018-12-28T17:14:59Z</time>
      </trkpt>
      <trkpt lat="36.348710" lon="-117.334740">
        <ele>768.922</ele>
        <time>2018-12-28T17:15:19Z</time>
      </trkpt>
      <trkpt lat="36.348690" lon="-117.334550">
        <ele>771.208</ele>
        <time>2018-12-28T17:15:39Z</time>
      </trkpt>
      <trkpt lat="36.348660" lon="-117.334280">
        <ele>774.777</ele>
        <time>2018-12-28T17:15:59Z</time>
      </trkpt>
      <trkpt lat="36.348510" lon="-117.332960">
        <ele>779.495</ele>
        <time>2018-12-28T17:16:19Z</time>
      </trkpt>
      <trkpt lat="36.348370" lon="-117.331780">
        <ele>789.320</ele>
        <time>2018-12-28T17:16:39Z</time>
      </trkpt>
      <trkpt lat="36.348190" lon="-117.330080">
        <ele>804.040</ele>
        <time>2018-12-28T17:16:59Z</time>
      </trkpt>
      <trkpt lat="36.348120" lon="-117.329410">
        <ele>809.154</ele>
        <time>2018-12-28T17:17:19Z</time>
      </trkpt>
      <trkpt lat="36.348060" lon="-117.328910">
        <ele>813.418</ele>
        <time>2018-12-28T17:17:39Z</time>
      </trkpt>
      <trkpt lat="36.348030" lon="-117.328570">
        <ele>816.457</ele>
        <time>2018-12-28T17:17:59Z</time>
      </trkpt>
      <trkpt lat="36.348020" lon="-117.328400">
        <ele>817.992</ele>
        <time>2018-12-28T17:18:19Z</time>
      </trkpt>
      <trkpt lat="36.348010" lon="-117.328190">
        <ele>819.772</ele>
        <time>2018-12-28T17:18:39Z</time>
      </trkpt>
      <trkpt lat="36.348000" lon="-117.327900">
        <ele>822.513</ele>
        <time>2018-12-28T17:18:59Z</time>
      </trkpt>
      <trkpt lat="36.348000" lon="-117.327450">
        <ele>827.914</ele>
        <time>2018-12-28T17:19:19Z</time>
      </trkpt>
      <trkpt lat="36.348000" lon="-117.327050">
        <ele>831.308</ele>
        <time>2018-12-28T17:19:39Z</time>
      </trkpt>
      <trkpt lat="36.347990" lon="-117.326750">
        <ele>833.140</ele>
        <time>2018-12-28T17:19:59Z</time>
      </trkpt>
      <trkpt lat="36.347980" lon="-117.326440">
        <ele>835.058</ele>
        <time>2018-12-28T17:20:19Z</time>
      </trkpt>
      <trkpt lat="36.347970" lon="-117.326250">
        <ele>836.613</ele>
        <time>2018-12-28T17:20:39Z</time>
      </trkpt>
      <trkpt lat="36.347940" lon="-117.325940">
        <ele>839.813</ele>
        <time>2018-12-28T17:20:59Z</time>
      </trkpt>
      <trkpt lat="36.347900" lon="-117.325640">
        <ele>842.787</ele>
        <time>2018-12-28T17:21:19Z</time>
      </trkpt>
      <trkpt lat="36.347850" lon="-117.325340">
        <ele>844.791</ele>
        <time>2018-12-28T17:21:39Z</time>
      </trkpt>
      <trkpt lat="36.347800" lon="-117.325070">
        <ele>846.860</ele>
        <time>2018-12-28T17:21:59Z</time>
      </trkpt>
      <trkpt lat="36.347720" lon="-117.324700">
        <ele>850.725</ele>
        <time>2018-12-28T17:22:19Z</time>
      </trkpt>
      <trkpt lat="36.347630" lon="-117.324320">
        <ele>854.424</ele>
        <time>2018-12-28T17:22:39Z</time>
      </trkpt>
      <trkpt lat="36.347500" lon="-117.323780">
        <ele>860.704</ele>
        <time>2018-12-28T17:22:59Z</time>
      </trkpt>
      <trkpt lat="36.347360" lon="-117.323160">
        <ele>867.714</ele>
        <time>2018-12-28T17:23:19Z</time>
      </trkpt>
      <trkpt lat="36.347170" lon="-117.322240">
        <ele>878.408</ele>
        <time>2018-12-28T17:23:39Z</time>
      </trkpt>
      <trkpt lat="36.346840" lon="-117.320660">
        <ele>895.085</ele>
        <time>2018-12-28T17:23:59Z</time>
      </trkpt>
      <trkpt lat="36.346580" lon="-117.319390">
        <ele>902.223</ele>
        <time>2018-12-28T17:24:19Z</time>
      </trkpt>
      <trkpt lat="36.346400" lon="-117.318500">
        <ele>912.768</ele>
        <time>2018-12-28T17:24:39Z</time>
      </trkpt>
      <trkpt lat="36.346340" lon="-117.318200">
        <ele>915.648</ele>
        <time>2018-12-28T17:24:59Z</time>
      </trkpt>
      <trkpt lat="36.346290" lon="-117.317990">
        <ele>917.962</ele>
        <time>2018-12-28T17:25:19Z</time>
      </trkpt>
      <trkpt lat="36.346170" lon="-117.317450">
        <ele>924.726</ele>
        <time>2018-12-28T17:25:39Z</time>
      </trkpt>
      <trkpt lat="36.346120" lon="-117.317230">
        <ele>926.655</ele>
        <time>2018-12-28T17:25:59Z</time>
      </trkpt>
      <trkpt lat="36.346080" lon="-117.317080">
        <ele>927.210</ele>
        <time>2018-12-28T17:26:19Z</time>
      </trkpt>
      <trkpt lat="36.346030" lon="-117.316950">
        <ele>927.247</ele>
        <time>2018-12-28T17:26:39Z</time>
      </trkpt>
      <trkpt lat="36.346000" lon="-117.316870">
        <ele>927.229</ele>
        <time>2018-12-28T17:26:59Z</time>
      </trkpt>
      <trkpt lat="36.345970" lon="-117.316800">
        <ele>927.221</ele>
        <time>2018-12-28T17:27:19Z</time>
      </trkpt>
      <trkpt lat="36.345940" lon="-117.316730">
        <ele>927.608</ele>
        <time>2018-12-28T17:27:39Z</time>
      </trkpt>
      <trkpt lat="36.345900" lon="-117.316660">
        <ele>928.037</ele>
        <time>2018-12-28T17:27:59Z</time>
      </trkpt>
      <trkpt lat="36.345870" lon="-117.316590">
        <ele>928.535</ele>
        <time>2018-12-28T17:28:19Z</time>
      </trkpt>
      <trkpt lat="36.345830" lon="-117.316530">
        <ele>928.870</ele>
        <time>2018-12-28T17:28:39Z</time>
      </trkpt>
      <trkpt lat="36.345790" lon="-117.316460">
        <ele>929.670</ele>
        <time>2018-12-28T17:28:59Z</time>
      </trkpt>
      <trkpt lat="36.345750" lon="-117.316390">
        <ele>930.264</ele>
        <time>2018-12-28T17:29:19Z</time>
      </trkpt>
      <trkpt lat="36.345710" lon="-117.316330">
        <ele>930.628</ele>
        <time>2018-12-28T17:29:39Z</time>
      </trkpt>
      <trkpt lat="36.345660" lon="-117.316260">
        <ele>930.997</ele>
        <time>2018-12-28T17:29:59Z</time>
      </trkpt>
      <trkpt lat="36.345610" lon="-117.316200">
        <ele>931.192</ele>
        <time>2018-12-28T17:30:19Z</time>
      </trkpt>
      <trkpt lat="36.345570" lon="-117.316140">
        <ele>931.447</ele>
        <time>2018-12-28T17:30:39Z</time>
      </trkpt>
      <trkpt lat="36.345520" lon="-117.316080">
        <ele>931.629</ele>
        <time>2018-12-28T17:30:59Z</time>
      </trkpt>
      <trkpt lat="36.345470" lon="-117.316020">
        <ele>931.821</ele>
        <time>2018-12-28T17:31:19Z</time>
      </trkpt>
      <trkpt lat="36.345410" lon="-117.315960">
        <ele>931.908</ele>
        <time>2018-12-28T17:31:39Z</time>
      </trkpt>
      <trkpt lat="36.345360" lon="-117.315900">
        <ele>931.937</ele>
        <time>2018-12-28T17:31:59Z</time>
      </trkpt>
      <trkpt lat="36.345290" lon="-117.315840">
        <ele>931.635</ele>
        <time>2018-12-28T17:32:19Z</time>
      </trkpt>
      <trkpt lat="36.345220" lon="-117.315770">
        <ele>931.340</ele>
        <time>2018-12-28T17:32:39Z</time>
      </trkpt>
      <trkpt lat="36.345150" lon="-117.315710">
        <ele>930.910</ele>
        <time>2018-12-28T17:32:59Z</time>
      </trkpt>
      <trkpt lat="36.345080" lon="-117.315650">
        <ele>930.624</ele>
        <time>2018-12-28T17:33:19Z</time>
      </trkpt>
      <trkpt lat="36.345010" lon="-117.315590">
        <ele>930.378</ele>
        <time>2018-12-28T17:33:39Z</time>
      </trkpt>
      <trkpt lat="36.344930" lon="-117.315540">
        <ele>929.767</ele>
        <time>2018-12-28T17:33:59Z</time>
      </trkpt>
      <trkpt lat="36.344850" lon="-117.315490">
        <ele>929.292</ele>
        <time>2018-12-28T17:34:19Z</time>
      </trkpt>
      <trkpt lat="36.344780" lon="-117.315440">
        <ele>929.581</ele>
        <time>2018-12-28T17:34:39Z</time>
      </trkpt>
      <trkpt lat="36.344730" lon="-117.315410">
        <ele>929.561</ele>
        <time>2018-12-28T17:34:59Z</time>
      </trkpt>
      <trkpt lat="36.344690" lon="-117.315380">
        <ele>929.617</ele>
        <time>2018-12-28T17:35:19Z</time>
      </trkpt>
      <trkpt lat="36.344640" lon="-117.315350">
        <ele>929.608</ele>
        <time>2018-12-28T17:35:39Z</time>
      </trkpt>
      <trkpt lat="36.344600" lon="-117.315320">
        <ele>929.731</ele>
        <time>2018-12-28T17:35:59Z</time>
      </trkpt>
      <trkpt lat="36.344550" lon="-117.315290">
        <ele>929.999</ele>
        <time>2018-12-28T17:36:19Z</time>
      </trkpt>
      <trkpt lat="36.344510" lon="-117.315260">
        <ele>930.314</ele>
        <time>2018-12-28T17:36:39Z</time>
      </trkpt>
      <trkpt lat="36.344460" lon="-117.315230">
        <ele>930.754</ele>
        <time>2018-12-28T17:36:59Z</time>
      </trkpt>
      <trkpt lat="36.344420" lon="-117.315200">
        <ele>931.338</ele>
        <time>2018-12-28T17:37:19Z</time>
      </trkpt>
      <trkpt lat="36.344380" lon="-117.315170">
        <ele>931.942</ele>
        <time>2018-12-28T17:37:39Z</time>
      </trkpt>
      <trkpt lat="36.344350" lon="-117.315140">
        <ele>932.621</ele>
        <time>2018-12-28T17:37:59Z</time>
      </trkpt>
      <trkpt lat="36.344310" lon="-117.315120">
        <ele>933.026</ele>
        <time>2018-12-28T17:38:19Z</time>
      </trkpt>
      <trkpt lat="36.344270" lon="-117.315090">
        <ele>934.188</ele>
        <time>2018-12-28T17:38:39Z</time>
      </trkpt>
      <trkpt lat="36.344240" lon="-117.315060">
        <ele>935.024</ele>
        <time>2018-12-28T17:38:59Z</time>
      </trkpt>
      <trkpt lat="36.344200" lon="-117.315030">
        <ele>936.126</ele>
        <time>2018-12-28T17:39:19Z</time>
      </trkpt>
      <trkpt lat="36.344160" lon="-117.315000">
        <ele>937.108</ele>
        <time>2018-12-28T17:39:39Z</time>
      </trkpt>
      <trkpt lat="36.344130" lon="-117.314970">
        <ele>937.871</ele>
        <time>2018-12-28T17:39:59Z</time>
      </trkpt>
      <trkpt lat="36.344090" lon="-117.314950">
        <ele>938.679</ele>
        <time>2018-12-28T17:40:19Z</time>
      </trkpt>
      <trkpt lat="36.344060" lon="-117.314920">
        <ele>939.224</ele>
        <time>2018-12-28T17:40:39Z</time>
      </trkpt>
      <trkpt lat="36.344020" lon="-117.314890">
        <ele>939.864</ele>
        <time>2018-12-28T17:40:59Z</time>
      </trkpt>
      <trkpt lat="36.343980" lon="-117.314870">
        <ele>939.998</ele>
        <time>2018-12-28T17:41:19Z</time>
      </trkpt>
      <trkpt lat="36.343940" lon="-117.314850">
        <ele>940.042</ele>
        <time>2018-12-28T17:41:39Z</time>
      </trkpt>
      <trkpt lat="36.343910" lon="-117.314820">
        <ele>940.011</ele>
        <time>2018-12-28T17:41:59Z</time>
      </trkpt>
      <trkpt lat="36.343870" lon="-117.314800">
        <ele>940.076</ele>
        <time>2018-12-28T17:42:19Z</time>
      </trkpt>
      <trkpt lat="36.343830" lon="-117.314770">
        <ele>940.181</ele>
        <time>2018-12-28T17:42:39Z</time>
      </trkpt>
      <trkpt lat="36.343790" lon="-117.314750">
        <ele>940.161</ele>
        <time>2018-12-28T17:42:59Z</time>
      </trkpt>
      <trkpt lat="36.343750" lon="-117.314720">
        <ele>940.217</ele>
        <time>2018-12-28T17:43:19Z</time>
      </trkpt>
      <trkpt lat="36.343710" lon="-117.314690">
        <ele>940.008</ele>
        <time>2018-12-28T17:43:39Z</time>
      </trkpt>
      <trkpt lat="36.343660" lon="-117.314660">
        <ele>940.051</ele>
        <time>2018-12-28T17:43:59Z</time>
      </trkpt>
      <trkpt lat="36.343620" lon="-117.314630">
        <ele>940.019</ele>
        <time>2018-12-28T17:44:19Z</time>
      </trkpt>
      <trkpt lat="36.343580" lon="-117.314600">
        <ele>940.124</ele>
        <time>2018-12-28T17:44:39Z</time>
      </trkpt>
      <trkpt lat="36.343540" lon="-117.314570">
        <ele>940.244</ele>
        <time>2018-12-28T17:44:59Z</time>
      </trkpt>
      <trkpt lat="36.343500" lon="-117.314540">
        <ele>940.298</ele>
        <time>2018-12-28T17:45:19Z</time>
      </trkpt>
      <trkpt lat="36.343450" lon="-117.314500">
        <ele>940.352</ele>
        <time>2018-12-28T17:45:39Z</time>
      </trkpt>
      <trkpt lat="36.343400" lon="-117.314450">
        <ele>940.491</ele>
        <time>2018-12-28T17:45:59Z</time>
      </trkpt>
      <trkpt lat="36.343350" lon="-117.314410">
        <ele>940.556</ele>
        <time>2018-12-28T17:46:19Z</time>
      </trkpt>
      <trkpt lat="36.343300" lon="-117.314360">
        <ele>940.788</ele>
        <time>2018-12-28T17:46:39Z</time>
      </trkpt>
      <trkpt lat="36.343250" lon="-117.314310">
        <ele>941.024</ele>
        <time>2018-12-28T17:46:59Z</time>
      </trkpt>
      <trkpt lat="36.343200" lon="-117.314260">
        <ele>941.026</ele>
        <time>2018-12-28T17:47:19Z</time>
      </trkpt>
      <trkpt lat="36.343150" lon="-117.314210">
        <ele>941.208</ele>
        <time>2018-12-28T17:47:39Z</time>
      </trkpt>
      <trkpt lat="36.343100" lon="-117.314160">
        <ele>941.971</ele>
        <time>2018-12-28T17:47:59Z</time>
      </trkpt>
      <trkpt lat="36.343050" lon="-117.314100">
        <ele>943.199</ele>
        <time>2018-12-28T17:48:19Z</time>
      </trkpt>
      <trkpt lat="36.342950" lon="-117.313950">
        <ele>945.934</ele>
        <time>2018-12-28T17:48:39Z</time>
      </trkpt>
      <trkpt lat="36.342880" lon="-117.313830">
        <ele>946.774</ele>
        <time>2018-12-28T17:48:59Z</time>
      </trkpt>
      <trkpt lat="36.342810" lon="-117.313710">
        <ele>948.298</ele>
        <time>2018-12-28T17:49:19Z</time>
      </trkpt>
      <trkpt lat="36.342760" lon="-117.313590">
        <ele>949.732</ele>
        <time>2018-12-28T17:49:39Z</time>
      </trkpt>
      <trkpt lat="36.342690" lon="-117.313430">
        <ele>951.471</ele>
        <time>2018-12-28T17:49:59Z</time>
      </trkpt>
      <trkpt lat="36.342640" lon="-117.313300">
        <ele>952.686</ele>
        <time>2018-12-28T17:50:19Z</time>
      </trkpt>
      <trkpt lat="36.342580" lon="-117.313120">
        <ele>954.187</ele>
        <time>2018-12-28T17:50:39Z</time>
      </trkpt>
      <trkpt lat="36.342530" lon="-117.312950">
        <ele>955.342</ele>
        <time>2018-12-28T17:50:59Z</time>
      </trkpt>
      <trkpt lat="36.342490" lon="-117.312790">
        <ele>956.126</ele>
        <time>2018-12-28T17:51:19Z</time>
      </trkpt>
      <trkpt lat="36.342470" lon="-117.312650">
        <ele>955.908</ele>
        <time>2018-12-28T17:51:39Z</time>
      </trkpt>
      <trkpt lat="36.342450" lon="-117.312500">
        <ele>956.491</ele>
        <time>2018-12-28T17:51:59Z</time>
      </trkpt>
      <trkpt lat="36.342440" lon="-117.312320">
        <ele>957.129</ele>
        <time>2018-12-28T17:52:19Z</time>
      </trkpt>
      <trkpt lat="36.342440" lon="-117.312180">
        <ele>959.164</ele>
        <time>2018-12-28T17:52:39Z</time>
      </trkpt>
      <trkpt lat="36.342440" lon="-117.311990">
        <ele>961.614</ele>
        <time>2018-12-28T17:52:59Z</time>
      </trkpt>
      <trkpt lat="36.342450" lon="-117.311810">
        <ele>963.958</ele>
        <time>2018-12-28T17:53:19Z</time>
      </trkpt>
      <trkpt lat="36.342480" lon="-117.311530">
        <ele>970.122</ele>
        <time>2018-12-28T17:53:39Z</time>
      </trkpt>
      <trkpt lat="36.342540" lon="-117.311270">
        <ele>976.351</ele>
        <time>2018-12-28T17:53:59Z</time>
      </trkpt>
      <trkpt lat="36.342580" lon="-117.311120">
        <ele>977.816</ele>
        <time>2018-12-28T17:54:19Z</time>
      </trkpt>
      <trkpt lat="36.342620" lon="-117.311000">
        <ele>978.511</ele>
        <time>2018-12-28T17:54:39Z</time>
      </trkpt>
      <trkpt lat="36.342710" lon="-117.310740">
        <ele>984.521</ele>
        <time>2018-12-28T17:54:59Z</time>
      </trkpt>
      <trkpt lat="36.342820" lon="-117.310510">
        <ele>989.903</ele>
        <time>2018-12-28T17:55:19Z</time>
      </trkpt>
      <trkpt lat="36.342880" lon="-117.310390">
        <ele>990.808</ele>
        <time>2018-12-28T17:55:39Z</time>
      </trkpt>
      <trkpt lat="36.342940" lon="-117.310280">
        <ele>991.994</ele>
        <time>2018-12-28T17:55:59Z</time>
      </trkpt>
      <trkpt lat="36.343010" lon="-117.310180">
        <ele>994.322</ele>
        <time>2018-12-28T17:56:19Z</time>
      </trkpt>
      <trkpt lat="36.343080" lon="-117.310080">
        <ele>997.377</ele>
        <time>2018-12-28T17:56:39Z</time>
      </trkpt>
      <trkpt lat="36.343170" lon="-117.309960">
        <ele>1000.137</ele>
        <time>2018-12-28T17:56:59Z</time>
      </trkpt>
      <trkpt lat="36.343290" lon="-117.309840">
        <ele>1001.381</ele>
        <time>2018-12-28T17:57:19Z</time>
      </trkpt>
      <trkpt lat="36.343400" lon="-117.309730">
        <ele>1001.995</ele>
        <time>2018-12-28T17:57:39Z</time>
      </trkpt>
      <trkpt lat="36.343540" lon="-117.309610">
        <ele>1003.254</ele>
        <time>2018-12-28T17:57:59Z</time>
      </trkpt>
      <trkpt lat="36.343640" lon="-117.309540">
        <ele>1006.069</ele>
        <time>2018-12-28T17:58:19Z</time>
      </trkpt>
      <trkpt lat="36.343840" lon="-117.309410">
        <ele>1009.144</ele>
        <time>2018-12-28T17:58:39Z</time>
      </trkpt>
      <trkpt lat="36.343990" lon="-117.309340">
        <ele>1009.505</ele>
        <time>2018-12-28T17:58:59Z</time>
      </trkpt>
      <trkpt lat="36.344160" lon="-117.309290">
        <ele>1007.815</ele>
        <time>2018-12-28T17:59:19Z</time>
      </trkpt>
      <trkpt lat="36.344270" lon="-117.309260">
        <ele>1006.508</ele>
        <time>2018-12-28T17:59:39Z</time>
      </trkpt>
      <trkpt lat="36.344350" lon="-117.309240">
        <ele>1005.937</ele>
        <time>2018-12-28T17:59:59Z</time>
      </trkpt>
      <trkpt lat="36.344600" lon="-117.309180">
        <ele>1005.585</ele>
        <time>2018-12-28T18:00:19Z</time>
      </trkpt>
      <trkpt lat="36.344850" lon="-117.309110">
        <ele>1006.040</ele>
        <time>2018-12-28T18:00:39Z</time>
      </trkpt>
      <trkpt lat="36.345200" lon="-117.308990">
        <ele>1011.720</ele>
        <time>2018-12-28T18:00:59Z</time>
      </trkpt>
      <trkpt lat="36.345440" lon="-117.308920">
        <ele>1012.794</ele>
        <time>2018-12-28T18:01:19Z</time>
      </trkpt>
      <trkpt lat="36.345580" lon="-117.308880">
        <ele>1012.258</ele>
        <time>2018-12-28T18:01:39Z</time>
      </trkpt>
      <trkpt lat="36.345640" lon="-117.308860">
        <ele>1012.277</ele>
        <time>2018-12-28T18:01:59Z</time>
      </trkpt>
      <trkpt lat="36.345740" lon="-117.308810">
        <ele>1012.732</ele>
        <time>2018-12-28T18:02:19Z</time>
      </trkpt>
      <trkpt lat="36.345830" lon="-117.308760">
        <ele>1013.451</ele>
        <time>2018-12-28T18:02:39Z</time>
      </trkpt>
      <trkpt lat="36.345930" lon="-117.308710">
        <ele>1013.501</ele>
        <time>2018-12-28T18:02:59Z</time>
      </trkpt>
      <trkpt lat="36.346020" lon="-117.308640">
        <ele>1013.811</ele>
        <time>2018-12-28T18:03:19Z</time>
      </trkpt>
      <trkpt lat="36.346110" lon="-117.308580">
        <ele>1014.508</ele>
        <time>2018-12-28T18:03:39Z</time>
      </trkpt>
      <trkpt lat="36.346200" lon="-117.308510">
        <ele>1015.638</ele>
        <time>2018-12-28T18:03:59Z</time>
      </trkpt>
      <trkpt lat="36.346280" lon="-117.308430">
        <ele>1016.526</ele>
        <time>2018-12-28T18:04:19Z</time>
      </trkpt>
      <trkpt lat="36.346360" lon="-117.308350">
        <ele>1017.661</ele>
        <time>2018-12-28T18:04:39Z</time>
      </trkpt>
      <trkpt lat="36.346470" lon="-117.308230">
        <ele>1020.881</ele>
        <time>2018-12-28T18:04:59Z</time>
      </trkpt>
      <trkpt lat="36.346580" lon="-117.308100">
        <ele>1023.675</ele>
        <time>2018-12-28T18:05:19Z</time>
      </trkpt>
      <trkpt lat="36.346680" lon="-117.307960">
        <ele>1025.139</ele>
        <time>2018-12-28T18:05:39Z</time>
      </trkpt>
      <trkpt lat="36.346770" lon="-117.307810">
        <ele>1026.578</ele>
        <time>2018-12-28T18:05:59Z</time>
      </trkpt>
      <trkpt lat="36.346850" lon="-117.307660">
        <ele>1027.993</ele>
        <time>2018-12-28T18:06:19Z</time>
      </trkpt>
      <trkpt lat="36.346930" lon="-117.307490">
        <ele>1029.095</ele>
        <time>2018-12-28T18:06:39Z</time>
      </trkpt>
      <trkpt lat="36.346990" lon="-117.307330">
        <ele>1030.649</ele>
        <time>2018-12-28T18:06:59Z</time>
      </trkpt>
      <trkpt lat="36.347050" lon="-117.307160">
        <ele>1033.523</ele>
        <time>2018-12-28T18:07:19Z</time>
      </trkpt>
      <trkpt lat="36.347090" lon="-117.307030">
        <ele>1035.408</ele>
        <time>2018-12-28T18:07:39Z</time>
      </trkpt>
      <trkpt lat="36.347120" lon="-117.306900">
        <ele>1036.812</ele>
        <time>2018-12-28T18:07:59Z</time>
      </trkpt>
      <trkpt lat="36.347140" lon="-117.306770">
        <ele>1038.120</ele>
        <time>2018-12-28T18:08:19Z</time>
      </trkpt>
      <trkpt lat="36.347170" lon="-117.306640">
        <ele>1039.055</ele>
        <time>2018-12-28T18:08:39Z</time>
      </trkpt>
      <trkpt lat="36.347180" lon="-117.306510">
        <ele>1040.055</ele>
        <time>2018-12-28T18:08:59Z</time>
      </trkpt>
      <trkpt lat="36.347200" lon="-117.306380">
        <ele>1041.059</ele>
        <time>2018-12-28T18:09:19Z</time>
      </trkpt>
      <trkpt lat="36.347200" lon="-117.306240">
        <ele>1042.223</ele>
        <time>2018-12-28T18:09:39Z</time>
      </trkpt>
      <trkpt lat="36.347200" lon="-117.306110">
        <ele>1043.382</ele>
        <time>2018-12-28T18:09:59Z</time>
      </trkpt>
      <trkpt lat="36.347200" lon="-117.306030">
        <ele>1044.037</ele>
        <time>2018-12-28T18:10:19Z</time>
      </trkpt>
      <trkpt lat="36.347200" lon="-117.305960">
        <ele>1044.688</ele>
        <time>2018-12-28T18:10:39Z</time>
      </trkpt>
      <trkpt lat="36.347200" lon="-117.305880">
        <ele>1045.224</ele>
        <time>2018-12-28T18:10:59Z</time>
      </trkpt>
      <trkpt lat="36.347190" lon="-117.305810">
        <ele>1045.726</ele>
        <time>2018-12-28T18:11:19Z</time>
      </trkpt>
      <trkpt lat="36.347180" lon="-117.305730">
        <ele>1046.208</ele>
        <time>2018-12-28T18:11:39Z</time>
      </trkpt>
      <trkpt lat="36.347170" lon="-117.305660">
        <ele>1046.811</ele>
        <time>2018-12-28T18:11:59Z</time>
      </trkpt>
      <trkpt lat="36.347160" lon="-117.305580">
        <ele>1047.549</ele>
        <time>2018-12-28T18:12:19Z</time>
      </trkpt>
      <trkpt lat="36.347150" lon="-117.305510">
        <ele>1048.134</ele>
        <time>2018-12-28T18:12:39Z</time>
      </trkpt>
      <trkpt lat="36.347130" lon="-117.305400">
        <ele>1049.094</ele>
        <time>2018-12-28T18:12:59Z</time>
      </trkpt>
      <trkpt lat="36.347100" lon="-117.305270">
        <ele>1050.358</ele>
        <time>2018-12-28T18:13:19Z</time>
      </trkpt>
      <trkpt lat="36.346890" lon="-117.304360">
        <ele>1061.612</ele>
        <time>2018-12-28T18:13:39Z</time>
      </trkpt>
      <trkpt lat="36.346750" lon="-117.303800">
        <ele>1066.861</ele>
        <time>2018-12-28T18:13:59Z</time>
      </trkpt>
      <trkpt lat="36.346690" lon="-117.303490">
        <ele>1071.356</ele>
        <time>2018-12-28T18:14:19Z</time>
      </trkpt>
      <trkpt lat="36.346670" lon="-117.303330">
        <ele>1073.196</ele>
        <time>2018-12-28T18:14:39Z</time>
      </trkpt>
      <trkpt lat="36.346660" lon="-117.303190">
        <ele>1074.631</ele>
        <time>2018-12-28T18:14:59Z</time>
      </trkpt>
      <trkpt lat="36.346650" lon="-117.303100">
        <ele>1075.324</ele>
        <time>2018-12-28T18:15:19Z</time>
      </trkpt>
      <trkpt lat="36.346640" lon="-117.303020">
        <ele>1075.808</ele>
        <time>2018-12-28T18:15:39Z</time>
      </trkpt>
      <trkpt lat="36.346640" lon="-117.302940">
        <ele>1076.432</ele>
        <time>2018-12-28T18:15:59Z</time>
      </trkpt>
      <trkpt lat="36.346640" lon="-117.302880">
        <ele>1076.840</ele>
        <time>2018-12-28T18:16:19Z</time>
      </trkpt>
      <trkpt lat="36.346640" lon="-117.302790">
        <ele>1077.325</ele>
        <time>2018-12-28T18:16:39Z</time>
      </trkpt>
      <trkpt lat="36.346650" lon="-117.302710">
        <ele>1078.155</ele>
        <time>2018-12-28T18:16:59Z</time>
      </trkpt>
      <trkpt lat="36.346660" lon="-117.302580">
        <ele>1079.239</ele>
        <time>2018-12-28T18:17:19Z</time>
      </trkpt>
      <trkpt lat="36.346660" lon="-117.302490">
        <ele>1079.893</ele>
        <time>2018-12-28T18:17:39Z</time>
      </trkpt>
      <trkpt lat="36.346670" lon="-117.302420">
        <ele>1080.532</ele>
        <time>2018-12-28T18:17:59Z</time>
      </trkpt>
      <trkpt lat="36.346690" lon="-117.302280">
        <ele>1082.587</ele>
        <time>2018-12-28T18:18:19Z</time>
      </trkpt>
      <trkpt lat="36.346710" lon="-117.302160">
        <ele>1084.399</ele>
        <time>2018-12-28T18:18:39Z</time>
      </trkpt>
      <trkpt lat="36.346730" lon="-117.302080">
        <ele>1085.507</ele>
        <time>2018-12-28T18:18:59Z</time>
      </trkpt>
      <trkpt lat="36.346750" lon="-117.302000">
        <ele>1086.527</ele>
        <time>2018-12-28T18:19:19Z</time>
      </trkpt>
      <trkpt lat="36.346770" lon="-117.301930">
        <ele>1087.408</ele>
        <time>2018-12-28T18:19:39Z</time>
      </trkpt>
      <trkpt lat="36.346810" lon="-117.301820">
        <ele>1088.742</ele>
        <time>2018-12-28T18:19:59Z</time>
      </trkpt>
      <trkpt lat="36.346880" lon="-117.301650">
        <ele>1089.040</ele>
        <time>2018-12-28T18:20:19Z</time>
      </trkpt>
      <trkpt lat="36.346970" lon="-117.301430">
        <ele>1091.155</ele>
        <time>2018-12-28T18:20:39Z</time>
      </trkpt>
      <trkpt lat="36.347070" lon="-117.301230">
        <ele>1093.685</ele>
        <time>2018-12-28T18:20:59Z</time>
      </trkpt>
      <trkpt lat="36.347140" lon="-117.301120">
        <ele>1095.369</ele>
        <time>2018-12-28T18:21:19Z</time>
      </trkpt>
      <trkpt lat="36.347210" lon="-117.301010">
        <ele>1096.333</ele>
        <time>2018-12-28T18:21:39Z</time>
      </trkpt>
      <trkpt lat="36.347260" lon="-117.300930">
        <ele>1096.742</ele>
        <time>2018-12-28T18:21:59Z</time>
      </trkpt>
      <trkpt lat="36.347320" lon="-117.300860">
        <ele>1096.987</ele>
        <time>2018-12-28T18:22:19Z</time>
      </trkpt>
      <trkpt lat="36.347440" lon="-117.300720">
        <ele>1097.275</ele>
        <time>2018-12-28T18:22:39Z</time>
      </trkpt>
      <trkpt lat="36.347550" lon="-117.300610">
        <ele>1098.028</ele>
        <time>2018-12-28T18:22:59Z</time>
      </trkpt>
      <trkpt lat="36.347650" lon="-117.300510">
        <ele>1098.420</ele>
        <time>2018-12-28T18:23:19Z</time>
      </trkpt>
      <trkpt lat="36.347780" lon="-117.300410">
        <ele>1099.308</ele>
        <time>2018-12-28T18:23:39Z</time>
      </trkpt>
      <trkpt lat="36.347980" lon="-117.300260">
        <ele>1099.970</ele>
        <time>2018-12-28T18:23:59Z</time>
      </trkpt>
      <trkpt lat="36.348500" lon="-117.299890">
        <ele>1106.858</ele>
        <time>2018-12-28T18:24:19Z</time>
      </trkpt>
      <trkpt lat="36.349030" lon="-117.299500">
        <ele>1110.363</ele>
        <time>2018-12-28T18:24:39Z</time>
      </trkpt>
      <trkpt lat="36.349300" lon="-117.299310">
        <ele>1111.973</ele>
        <time>2018-12-28T18:24:59Z</time>
      </trkpt>
      <trkpt lat="36.349470" lon="-117.299180">
        <ele>1112.427</ele>
        <time>2018-12-28T18:25:19Z</time>
      </trkpt>
      <trkpt lat="36.349810" lon="-117.298890">
        <ele>1116.331</ele>
        <time>2018-12-28T18:25:39Z</time>
      </trkpt>
      <trkpt lat="36.349950" lon="-117.298750">
        <ele>1119.170</ele>
        <time>2018-12-28T18:25:59Z</time>
      </trkpt>
      <trkpt lat="36.350050" lon="-117.298630">
        <ele>1120.985</ele>
        <time>2018-12-28T18:26:19Z</time>
      </trkpt>
      <trkpt lat="36.350280" lon="-117.298370">
        <ele>1122.864</ele>
        <time>2018-12-28T18:26:39Z</time>
      </trkpt>
      <trkpt lat="36.350400" lon="-117.298210">
        <ele>1123.806</ele>
        <time>2018-12-28T18:26:59Z</time>
      </trkpt>
      <trkpt lat="36.350490" lon="-117.298090">
        <ele>1123.916</ele>
        <time>2018-12-28T18:27:19Z</time>
      </trkpt>
      <trkpt lat="36.350670" lon="-117.297820">
        <ele>1124.208</ele>
        <time>2018-12-28T18:27:39Z</time>
      </trkpt>
      <trkpt lat="36.350870" lon="-117.297470">
        <ele>1125.979</ele>
        <time>2018-12-28T18:27:59Z</time>
      </trkpt>
      <trkpt lat="36.351420" lon="-117.296540">
        <ele>1129.897</ele>
        <time>2018-12-28T18:28:19Z</time>
      </trkpt>
      <trkpt lat="36.351700" lon="-117.296080">
        <ele>1131.122</ele>
        <time>2018-12-28T18:28:39Z</time>
      </trkpt>
      <trkpt lat="36.351910" lon="-117.295720">
        <ele>1132.912</ele>
        <time>2018-12-28T18:28:59Z</time>
      </trkpt>
      <trkpt lat="36.352000" lon="-117.295580">
        <ele>1133.796</ele>
        <time>2018-12-28T18:29:19Z</time>
      </trkpt>
      <trkpt lat="36.352090" lon="-117.295450">
        <ele>1134.660</ele>
        <time>2018-12-28T18:29:39Z</time>
      </trkpt>
      <trkpt lat="36.352190" lon="-117.295310">
        <ele>1135.699</ele>
        <time>2018-12-28T18:29:59Z</time>
      </trkpt>
      <trkpt lat="36.352320" lon="-117.295160">
        <ele>1138.344</ele>
        <time>2018-12-28T18:30:19Z</time>
      </trkpt>
      <trkpt lat="36.352450" lon="-117.295040">
        <ele>1140.526</ele>
        <time>2018-12-28T18:30:39Z</time>
      </trkpt>
      <trkpt lat="36.352600" lon="-117.294900">
        <ele>1142.247</ele>
        <time>2018-12-28T18:30:59Z</time>
      </trkpt>
      <trkpt lat="36.352740" lon="-117.294800">
        <ele>1143.211</ele>
        <time>2018-12-28T18:31:19Z</time>
      </trkpt>
      <trkpt lat="36.352860" lon="-117.294710">
        <ele>1143.808</ele>
        <time>2018-12-28T18:31:39Z</time>
      </trkpt>
      <trkpt lat="36.352970" lon="-117.294650">
        <ele>1144.665</ele>
        <time>2018-12-28T18:31:59Z</time>
      </trkpt>
      <trkpt lat="36.353070" lon="-117.294600">
        <ele>1145.723</ele>
        <time>2018-12-28T18:32:19Z</time>
      </trkpt>
      <trkpt lat="36.353240" lon="-117.294520">
        <ele>1146.528</ele>
        <time>2018-12-28T18:32:39Z</time>
      </trkpt>
      <trkpt lat="36.353390" lon="-117.294460">
        <ele>1146.828</ele>
        <time>2018-12-28T18:32:59Z</time>
      </trkpt>
      <trkpt lat="36.353950" lon="-117.294230">
        <ele>1151.392</ele>
        <time>2018-12-28T18:33:19Z</time>
      </trkpt>
      <trkpt lat="36.354570" lon="-117.293980">
        <ele>1152.686</ele>
        <time>2018-12-28T18:33:39Z</time>
      </trkpt>
      <trkpt lat="36.355010" lon="-117.293800">
        <ele>1157.965</ele>
        <time>2018-12-28T18:33:59Z</time>
      </trkpt>
      <trkpt lat="36.355500" lon="-117.293590">
        <ele>1163.070</ele>
        <time>2018-12-28T18:34:19Z</time>
      </trkpt>
      <trkpt lat="36.355600" lon="-117.293540">
        <ele>1164.224</ele>
        <time>2018-12-28T18:34:39Z</time>
      </trkpt>
      <trkpt lat="36.355700" lon="-117.293490">
        <ele>1165.804</ele>
        <time>2018-12-28T18:34:59Z</time>
      </trkpt>
      <trkpt lat="36.355780" lon="-117.293460">
        <ele>1166.514</ele>
        <time>2018-12-28T18:35:19Z</time>
      </trkpt>
      <trkpt lat="36.355850" lon="-117.293410">
        <ele>1167.908</ele>
        <time>2018-12-28T18:35:39Z</time>
      </trkpt>
      <trkpt lat="36.355920" lon="-117.293370">
        <ele>1169.145</ele>
        <time>2018-12-28T18:35:59Z</time>
      </trkpt>
      <trkpt lat="36.356090" lon="-117.293250">
        <ele>1171.813</ele>
        <time>2018-12-28T18:36:19Z</time>
      </trkpt>
      <trkpt lat="36.356220" lon="-117.293160">
        <ele>1173.758</ele>
        <time>2018-12-28T18:36:39Z</time>
      </trkpt>
      <trkpt lat="36.356290" lon="-117.293100">
        <ele>1174.598</ele>
        <time>2018-12-28T18:36:59Z</time>
      </trkpt>
      <trkpt lat="36.356420" lon="-117.292990">
        <ele>1178.082</ele>
        <time>2018-12-28T18:37:19Z</time>
      </trkpt>
      <trkpt lat="36.356500" lon="-117.292910">
        <ele>1182.456</ele>
        <time>2018-12-28T18:37:39Z</time>
      </trkpt>
      <trkpt lat="36.356540" lon="-117.292870">
        <ele>1183.185</ele>
        <time>2018-12-28T18:37:59Z</time>
      </trkpt>
      <trkpt lat="36.356580" lon="-117.292830">
        <ele>1182.420</ele>
        <time>2018-12-28T18:38:19Z</time>
      </trkpt>
      <trkpt lat="36.356630" lon="-117.292770">
        <ele>1182.261</ele>
        <time>2018-12-28T18:38:39Z</time>
      </trkpt>
      <trkpt lat="36.356700" lon="-117.292700">
        <ele>1182.621</ele>
        <time>2018-12-28T18:38:59Z</time>
      </trkpt>
      <trkpt lat="36.356790" lon="-117.292590">
        <ele>1184.413</ele>
        <time>2018-12-28T18:39:19Z</time>
      </trkpt>
      <trkpt lat="36.356900" lon="-117.292460">
        <ele>1184.208</ele>
        <time>2018-12-28T18:39:39Z</time>
      </trkpt>
      <trkpt lat="36.356980" lon="-117.292350">
        <ele>1185.129</ele>
        <time>2018-12-28T18:39:59Z</time>
      </trkpt>
      <trkpt lat="36.357060" lon="-117.292210">
        <ele>1189.237</ele>
        <time>2018-12-28T18:40:19Z</time>
      </trkpt>
      <trkpt lat="36.357160" lon="-117.292050">
        <ele>1192.342</ele>
        <time>2018-12-28T18:40:39Z</time>
      </trkpt>
      <trkpt lat="36.357250" lon="-117.291880">
        <ele>1195.122</ele>
        <time>2018-12-28T18:40:59Z</time>
      </trkpt>
      <trkpt lat="36.357320" lon="-117.291750">
        <ele>1198.016</ele>
        <time>2018-12-28T18:41:19Z</time>
      </trkpt>
      <trkpt lat="36.357430" lon="-117.291510">
        <ele>1201.570</ele>
        <time>2018-12-28T18:41:39Z</time>
      </trkpt>
      <trkpt lat="36.357770" lon="-117.290710">
        <ele>1208.219</ele>
        <time>2018-12-28T18:41:59Z</time>
      </trkpt>
      <trkpt lat="36.357850" lon="-117.290520">
        <ele>1208.784</ele>
        <time>2018-12-28T18:42:19Z</time>
      </trkpt>
      <trkpt lat="36.357950" lon="-117.290330">
        <ele>1208.659</ele>
        <time>2018-12-28T18:42:39Z</time>
      </trkpt>
      <trkpt lat="36.358040" lon="-117.290170">
        <ele>1207.903</ele>
        <time>2018-12-28T18:42:59Z</time>
      </trkpt>
      <trkpt lat="36.358130" lon="-117.290040">
        <ele>1207.423</ele>
        <time>2018-12-28T18:43:19Z</time>
      </trkpt>
      <trkpt lat="36.358220" lon="-117.289920">
        <ele>1207.008</ele>
        <time>2018-12-28T18:43:39Z</time>
      </trkpt>
      <trkpt lat="36.358320" lon="-117.289780">
        <ele>1205.458</ele>
        <time>2018-12-28T18:43:59Z</time>
      </trkpt>
      <trkpt lat="36.358410" lon="-117.289680">
        <ele>1203.346</ele>
        <time>2018-12-28T18:44:19Z</time>
      </trkpt>
      <trkpt lat="36.358570" lon="-117.289520">
        <ele>1199.261</ele>
        <time>2018-12-28T18:44:39Z</time>
      </trkpt>
      <trkpt lat="36.358690" lon="-117.289410">
        <ele>1196.591</ele>
        <time>2018-12-28T18:44:59Z</time>
      </trkpt>
      <trkpt lat="36.358830" lon="-117.289300">
        <ele>1197.335</ele>
        <time>2018-12-28T18:45:19Z</time>
      </trkpt>
      <trkpt lat="36.359020" lon="-117.289170">
        <ele>1206.879</ele>
        <time>2018-12-28T18:45:39Z</time>
      </trkpt>
      <trkpt lat="36.359230" lon="-117.289050">
        <ele>1217.518</ele>
        <time>2018-12-28T18:45:59Z</time>
      </trkpt>
      <trkpt lat="36.359490" lon="-117.288940">
        <ele>1225.493</ele>
        <time>2018-12-28T18:46:19Z</time>
      </trkpt>
      <trkpt lat="36.359660" lon="-117.288890">
        <ele>1229.526</ele>
        <time>2018-12-28T18:46:39Z</time>
      </trkpt>
      <trkpt lat="36.359790" lon="-117.288860">
        <ele>1233.147</ele>
        <time>2018-12-28T18:46:59Z</time>
      </trkpt>
      <trkpt lat="36.360080" lon="-117.288810">
        <ele>1238.111</ele>
        <time>2018-12-28T18:47:19Z</time>
      </trkpt>
      <trkpt lat="36.360430" lon="-117.288760">
        <ele>1246.508</ele>
        <time>2018-12-28T18:47:39Z</time>
      </trkpt>
      <trkpt lat="36.360560" lon="-117.288750">
        <ele>1246.455</ele>
        <time>2018-12-28T18:47:59Z</time>
      </trkpt>
      <trkpt lat="36.360950" lon="-117.288680">
        <ele>1243.653</ele>
        <time>2018-12-28T18:48:19Z</time>
      </trkpt>
      <trkpt lat="36.361210" lon="-117.288600">
        <ele>1241.838</ele>
        <time>2018-12-28T18:48:39Z</time>
      </trkpt>
      <trkpt lat="36.361440" lon="-117.288520">
        <ele>1242.118</ele>
        <time>2018-12-28T18:48:59Z</time>
      </trkpt>
      <trkpt lat="36.361580" lon="-117.288460">
        <ele>1243.912</ele>
        <time>2018-12-28T18:49:19Z</time>
      </trkpt>
      <trkpt lat="36.361810" lon="-117.288350">
        <ele>1245.126</ele>
        <time>2018-12-28T18:49:39Z</time>
      </trkpt>
      <trkpt lat="36.361980" lon="-117.288260">
        <ele>1245.775</ele>
        <time>2018-12-28T18:49:59Z</time>
      </trkpt>
      <trkpt lat="36.362180" lon="-117.288130">
        <ele>1247.830</ele>
        <time>2018-12-28T18:50:19Z</time>
      </trkpt>
      <trkpt lat="36.362400" lon="-117.287980">
        <ele>1248.259</ele>
        <time>2018-12-28T18:50:39Z</time>
      </trkpt>
      <trkpt lat="36.362680" lon="-117.287750">
        <ele>1250.203</ele>
        <time>2018-12-28T18:50:59Z</time>
      </trkpt>
      <trkpt lat="36.362890" lon="-117.287570">
        <ele>1255.723</ele>
        <time>2018-12-28T18:51:19Z</time>
      </trkpt>
      <trkpt lat="36.363180" lon="-117.287300">
        <ele>1258.108</ele>
        <time>2018-12-28T18:51:39Z</time>
      </trkpt>
      <trkpt lat="36.363680" lon="-117.286850">
        <ele>1268.248</ele>
        <time>2018-12-28T18:51:59Z</time>
      </trkpt>
      <trkpt lat="36.363930" lon="-117.286650">
        <ele>1270.116</ele>
        <time>2018-12-28T18:52:19Z</time>
      </trkpt>
      <trkpt lat="36.364070" lon="-117.286560">
        <ele>1272.481</ele>
        <time>2018-12-28T18:52:39Z</time>
      </trkpt>
      <trkpt lat="36.364210" lon="-117.286490">
        <ele>1277.381</ele>
        <time>2018-12-28T18:52:59Z</time>
      </trkpt>
      <trkpt lat="36.364260" lon="-117.286460">
        <ele>1278.895</ele>
        <time>2018-12-28T18:53:19Z</time>
      </trkpt>
      <trkpt lat="36.364350" lon="-117.286420">
        <ele>1281.149</ele>
        <time>2018-12-28T18:53:39Z</time>
      </trkpt>
      <trkpt lat="36.364480" lon="-117.286370">
        <ele>1283.978</ele>
        <time>2018-12-28T18:53:59Z</time>
      </trkpt>
      <trkpt lat="36.364550" lon="-117.286360">
        <ele>1285.643</ele>
        <time>2018-12-28T18:54:19Z</time>
      </trkpt>
      <trkpt lat="36.364700" lon="-117.286320">
        <ele>1290.491</ele>
        <time>2018-12-28T18:54:39Z</time>
      </trkpt>
      <trkpt lat="36.364850" lon="-117.286300">
        <ele>1295.681</ele>
        <time>2018-12-28T18:54:59Z</time>
      </trkpt>
      <trkpt lat="36.364980" lon="-117.286290">
        <ele>1297.619</ele>
        <time>2018-12-28T18:55:19Z</time>
      </trkpt>
      <trkpt lat="36.365130" lon="-117.286290">
        <ele>1299.208</ele>
        <time>2018-12-28T18:55:39Z</time>
      </trkpt>
      <trkpt lat="36.365310" lon="-117.286300">
        <ele>1300.112</ele>
        <time>2018-12-28T18:55:59Z</time>
      </trkpt>
      <trkpt lat="36.365460" lon="-117.286320">
        <ele>1300.510</ele>
        <time>2018-12-28T18:56:19Z</time>
      </trkpt>
      <trkpt lat="36.365590" lon="-117.286350">
        <ele>1301.085</ele>
        <time>2018-12-28T18:56:39Z</time>
      </trkpt>
      <trkpt lat="36.365690" lon="-117.286390">
        <ele>1300.825</ele>
        <time>2018-12-28T18:56:59Z</time>
      </trkpt>
      <trkpt lat="36.365800" lon="-117.286430">
        <ele>1300.679</ele>
        <time>2018-12-28T18:57:19Z</time>
      </trkpt>
      <trkpt lat="36.365980" lon="-117.286500">
        <ele>1300.023</ele>
        <time>2018-12-28T18:57:39Z</time>
      </trkpt>
      <trkpt lat="36.366120" lon="-117.286560">
        <ele>1299.832</ele>
        <time>2018-12-28T18:57:59Z</time>
      </trkpt>
      <trkpt lat="36.366260" lon="-117.286620">
        <ele>1301.677</ele>
        <time>2018-12-28T18:58:19Z</time>
      </trkpt>
      <trkpt lat="36.366830" lon="-117.286860">
        <ele>1311.812</ele>
        <time>2018-12-28T18:58:39Z</time>
      </trkpt>
      <trkpt lat="36.367120" lon="-117.286980">
        <ele>1311.132</ele>
        <time>2018-12-28T18:58:59Z</time>
      </trkpt>
      <trkpt lat="36.367280" lon="-117.287020">
        <ele>1312.805</ele>
        <time>2018-12-28T18:59:19Z</time>
      </trkpt>
      <trkpt lat="36.367410" lon="-117.287050">
        <ele>1313.508</ele>
        <time>2018-12-28T18:59:39Z</time>
      </trkpt>
      <trkpt lat="36.367510" lon="-117.287060">
        <ele>1313.814</ele>
        <time>2018-12-28T18:59:59Z</time>
      </trkpt>
      <trkpt lat="36.367650" lon="-117.287070">
        <ele>1314.222</ele>
        <time>2018-12-28T19:00:19Z</time>
      </trkpt>
      <trkpt lat="36.367840" lon="-117.287070">
        <ele>1313.377</ele>
        <time>2018-12-28T19:00:39Z</time>
      </trkpt>
      <trkpt lat="36.368040" lon="-117.287050">
        <ele>1311.587</ele>
        <time>2018-12-28T19:00:59Z</time>
      </trkpt>
      <trkpt lat="36.368220" lon="-117.287010">
        <ele>1310.051</ele>
        <time>2018-12-28T19:01:19Z</time>
      </trkpt>
      <trkpt lat="36.368400" lon="-117.286950">
        <ele>1312.765</ele>
        <time>2018-12-28T19:01:39Z</time>
      </trkpt>
      <trkpt lat="36.368520" lon="-117.286900">
        <ele>1315.584</ele>
        <time>2018-12-28T19:01:59Z</time>
      </trkpt>
      <trkpt lat="36.368600" lon="-117.286860">
        <ele>1318.589</ele>
        <time>2018-12-28T19:02:19Z</time>
      </trkpt>
      <trkpt lat="36.368820" lon="-117.286740">
        <ele>1324.876</ele>
        <time>2018-12-28T19:02:39Z</time>
      </trkpt>
      <trkpt lat="36.369130" lon="-117.286540">
        <ele>1328.890</ele>
        <time>2018-12-28T19:02:59Z</time>
      </trkpt>
      <trkpt lat="36.369360" lon="-117.286400">
        <ele>1329.919</ele>
        <time>2018-12-28T19:03:19Z</time>
      </trkpt>
      <trkpt lat="36.369770" lon="-117.286140">
        <ele>1329.508</ele>
        <time>2018-12-28T19:03:39Z</time>
      </trkpt>
      <trkpt lat="36.370080" lon="-117.285960">
        <ele>1326.080</ele>
        <time>2018-12-28T19:03:59Z</time>
      </trkpt>
      <trkpt lat="36.370300" lon="-117.285870">
        <ele>1330.818</ele>
        <time>2018-12-28T19:04:19Z</time>
      </trkpt>
      <trkpt lat="36.370570" lon="-117.285780">
        <ele>1334.293</ele>
        <time>2018-12-28T19:04:39Z</time>
      </trkpt>
      <trkpt lat="36.370840" lon="-117.285730">
        <ele>1334.033</ele>
        <time>2018-12-28T19:04:59Z</time>
      </trkpt>
      <trkpt lat="36.371040" lon="-117.285710">
        <ele>1334.327</ele>
        <time>2018-12-28T19:05:19Z</time>
      </trkpt>
      <trkpt lat="36.371350" lon="-117.285710">
        <ele>1340.171</ele>
        <time>2018-12-28T19:05:39Z</time>
      </trkpt>
      <trkpt lat="36.371760" lon="-117.285720">
        <ele>1348.920</ele>
        <time>2018-12-28T19:05:59Z</time>
      </trkpt>
      <trkpt lat="36.372260" lon="-117.285730">
        <ele>1357.685</ele>
        <time>2018-12-28T19:06:19Z</time>
      </trkpt>
      <trkpt lat="36.373140" lon="-117.285740">
        <ele>1365.245</ele>
        <time>2018-12-28T19:06:39Z</time>
      </trkpt>
      <trkpt lat="36.373350" lon="-117.285740">
        <ele>1365.147</ele>
        <time>2018-12-28T19:06:59Z</time>
      </trkpt>
      <trkpt lat="36.373610" lon="-117.285720">
        <ele>1365.011</ele>
        <time>2018-12-28T19:07:19Z</time>
      </trkpt>
      <trkpt lat="36.373880" lon="-117.285700">
        <ele>1366.108</ele>
        <time>2018-12-28T19:07:39Z</time>
      </trkpt>
      <trkpt lat="36.374290" lon="-117.285650">
        <ele>1371.067</ele>
        <time>2018-12-28T19:07:59Z</time>
      </trkpt>
      <trkpt lat="36.374570" lon="-117.285610">
        <ele>1374.095</ele>
        <time>2018-12-28T19:08:19Z</time>
      </trkpt>
      <trkpt lat="36.375020" lon="-117.285520">
        <ele>1383.640</ele>
        <time>2018-12-28T19:08:39Z</time>
      </trkpt>
      <trkpt lat="36.375940" lon="-117.285340">
        <ele>1397.280</ele>
        <time>2018-12-28T19:08:59Z</time>
      </trkpt>
      <trkpt lat="36.376470" lon="-117.285250">
        <ele>1406.824</ele>
        <time>2018-12-28T19:09:19Z</time>
      </trkpt>
      <trkpt lat="36.377300" lon="-117.285080">
        <ele>1408.998</ele>
        <time>2018-12-28T19:09:39Z</time>
      </trkpt>
      <trkpt lat="36.377370" lon="-117.285070">
        <ele>1409.027</ele>
        <time>2018-12-28T19:09:59Z</time>
      </trkpt>
      <trkpt lat="36.377520" lon="-117.285030">
        <ele>1408.142</ele>
        <time>2018-12-28T19:10:19Z</time>
      </trkpt>
      <trkpt lat="36.377950" lon="-117.284950">
        <ele>1406.046</ele>
        <time>2018-12-28T19:10:39Z</time>
      </trkpt>
      <trkpt lat="36.378550" lon="-117.284830">
        <ele>1414.388</ele>
        <time>2018-12-28T19:10:59Z</time>
      </trkpt>
      <trkpt lat="36.378980" lon="-117.284720">
        <ele>1419.116</ele>
        <time>2018-12-28T19:11:19Z</time>
      </trkpt>
      <trkpt lat="36.379150" lon="-117.284690">
        <ele>1419.708</ele>
        <time>2018-12-28T19:11:39Z</time>
      </trkpt>
      <trkpt lat="36.379290" lon="-117.284650">
        <ele>1420.167</ele>
        <time>2018-12-28T19:11:59Z</time>
      </trkpt>
      <trkpt lat="36.379470" lon="-117.284600">
        <ele>1420.475</ele>
        <time>2018-12-28T19:12:19Z</time>
      </trkpt>
      <trkpt lat="36.379590" lon="-117.284560">
        <ele>1420.530</ele>
        <time>2018-12-28T19:12:39Z</time>
      </trkpt>
      <trkpt lat="36.379950" lon="-117.284430">
        <ele>1423.530</ele>
        <time>2018-12-28T19:12:59Z</time>
      </trkpt>
      <trkpt lat="36.380180" lon="-117.284360">
        <ele>1428.644</ele>
        <time>2018-12-28T19:13:19Z</time>
      </trkpt>
      <trkpt lat="36.380300" lon="-117.284310">
        <ele>1429.618</ele>
        <time>2018-12-28T19:13:39Z</time>
      </trkpt>
      <trkpt lat="36.380670" lon="-117.284160">
        <ele>1429.997</ele>
        <time>2018-12-28T19:13:59Z</time>
      </trkpt>
      <trkpt lat="36.380960" lon="-117.284040">
        <ele>1431.562</ele>
        <time>2018-12-28T19:14:19Z</time>
      </trkpt>
      <trkpt lat="36.381130" lon="-117.283970">
        <ele>1431.911</ele>
        <time>2018-12-28T19:14:39Z</time>
      </trkpt>
      <trkpt lat="36.381290" lon="-117.283900">
        <ele>1432.421</ele>
        <time>2018-12-28T19:14:59Z</time>
      </trkpt>
      <trkpt lat="36.381410" lon="-117.283850">
        <ele>1432.403</ele>
        <time>2018-12-28T19:15:19Z</time>
      </trkpt>
      <trkpt lat="36.381750" lon="-117.283720">
        <ele>1435.708</ele>
        <time>2018-12-28T19:15:39Z</time>
      </trkpt>
      <trkpt lat="36.382130" lon="-117.283570">
        <ele>1442.794</ele>
        <time>2018-12-28T19:15:59Z</time>
      </trkpt>
      <trkpt lat="36.382420" lon="-117.283460">
        <ele>1445.542</ele>
        <time>2018-12-28T19:16:19Z</time>
      </trkpt>
      <trkpt lat="36.382700" lon="-117.283340">
        <ele>1443.787</ele>
        <time>2018-12-28T19:16:39Z</time>
      </trkpt>
      <trkpt lat="36.382820" lon="-117.283290">
        <ele>1443.527</ele>
        <time>2018-12-28T19:16:59Z</time>
      </trkpt>
      <trkpt lat="36.382940" lon="-117.283240">
        <ele>1443.281</ele>
        <time>2018-12-28T19:17:19Z</time>
      </trkpt>
      <trkpt lat="36.383100" lon="-117.283190">
        <ele>1443.845</ele>
        <time>2018-12-28T19:17:39Z</time>
      </trkpt>
      <trkpt lat="36.383240" lon="-117.283150">
        <ele>1444.394</ele>
        <time>2018-12-28T19:17:59Z</time>
      </trkpt>
      <trkpt lat="36.383400" lon="-117.283130">
        <ele>1444.449</ele>
        <time>2018-12-28T19:18:19Z</time>
      </trkpt>
      <trkpt lat="36.383850" lon="-117.283030">
        <ele>1447.777</ele>
        <time>2018-12-28T19:18:39Z</time>
      </trkpt>
      <trkpt lat="36.384290" lon="-117.282950">
        <ele>1453.361</ele>
        <time>2018-12-28T19:18:59Z</time>
      </trkpt>
      <trkpt lat="36.384860" lon="-117.282850">
        <ele>1457.027</ele>
        <time>2018-12-28T19:19:19Z</time>
      </trkpt>
      <trkpt lat="36.385370" lon="-117.282750">
        <ele>1460.308</ele>
        <time>2018-12-28T19:19:39Z</time>
      </trkpt>
      <trkpt lat="36.385740" lon="-117.282690">
        <ele>1461.840</ele>
        <time>2018-12-28T19:19:59Z</time>
      </trkpt>
      <trkpt lat="36.385870" lon="-117.282670">
        <ele>1462.258</ele>
        <time>2018-12-28T19:20:19Z</time>
      </trkpt>
      <trkpt lat="36.386550" lon="-117.282540">
        <ele>1466.183</ele>
        <time>2018-12-28T19:20:39Z</time>
      </trkpt>
      <trkpt lat="36.387120" lon="-117.282440">
        <ele>1471.123</ele>
        <time>2018-12-28T19:20:59Z</time>
      </trkpt>
      <trkpt lat="36.387540" lon="-117.282370">
        <ele>1474.697</ele>
        <time>2018-12-28T19:21:19Z</time>
      </trkpt>
      <trkpt lat="36.388130" lon="-117.282260">
        <ele>1479.851</ele>
        <time>2018-12-28T19:21:39Z</time>
      </trkpt>
      <trkpt lat="36.388320" lon="-117.282230">
        <ele>1480.960</ele>
        <time>2018-12-28T19:21:59Z</time>
      </trkpt>
      <trkpt lat="36.388790" lon="-117.282140">
        <ele>1482.915</ele>
        <time>2018-12-28T19:22:19Z</time>
      </trkpt>
      <trkpt lat="36.389450" lon="-117.282020">
        <ele>1485.895</ele>
        <time>2018-12-28T19:22:39Z</time>
      </trkpt>
      <trkpt lat="36.390360" lon="-117.281870">
        <ele>1491.649</ele>
        <time>2018-12-28T19:22:59Z</time>
      </trkpt>
      <trkpt lat="36.391000" lon="-117.281750">
        <ele>1493.523</ele>
        <time>2018-12-28T19:23:19Z</time>
      </trkpt>
      <trkpt lat="36.391850" lon="-117.281590">
        <ele>1495.108</ele>
        <time>2018-12-28T19:23:39Z</time>
      </trkpt>
      <trkpt lat="36.392450" lon="-117.281490">
        <ele>1496.082</ele>
        <time>2018-12-28T19:23:59Z</time>
      </trkpt>
      <trkpt lat="36.393260" lon="-117.281340">
        <ele>1500.570</ele>
        <time>2018-12-28T19:24:19Z</time>
      </trkpt>
      <trkpt lat="36.394350" lon="-117.281150">
        <ele>1504.645</ele>
        <time>2018-12-28T19:24:39Z</time>
      </trkpt>
      <trkpt lat="36.394880" lon="-117.281050">
        <ele>1505.855</ele>
        <time>2018-12-28T19:24:59Z</time>
      </trkpt>
      <trkpt lat="36.395800" lon="-117.280880">
        <ele>1507.499</ele>
        <time>2018-12-28T19:25:19Z</time>
      </trkpt>
      <trkpt lat="36.396290" lon="-117.280800">
        <ele>1508.243</ele>
        <time>2018-12-28T19:25:39Z</time>
      </trkpt>
      <trkpt lat="36.397070" lon="-117.280650">
        <ele>1509.932</ele>
        <time>2018-12-28T19:25:59Z</time>
      </trkpt>
      <trkpt lat="36.397610" lon="-117.280550">
        <ele>1510.717</ele>
        <time>2018-12-28T19:26:19Z</time>
      </trkpt>
      <trkpt lat="36.398080" lon="-117.280470">
        <ele>1511.348</ele>
        <time>2018-12-28T19:26:39Z</time>
      </trkpt>
      <trkpt lat="36.398350" lon="-117.280420">
        <ele>1511.661</ele>
        <time>2018-12-28T19:26:59Z</time>
      </trkpt>
      <trkpt lat="36.398780" lon="-117.280340">
        <ele>1512.117</ele>
        <time>2018-12-28T19:27:19Z</time>
      </trkpt>
      <trkpt lat="36.399330" lon="-117.280250">
        <ele>1511.608</ele>
        <time>2018-12-28T19:27:39Z</time>
      </trkpt>
      <trkpt lat="36.399930" lon="-117.280140">
        <ele>1511.567</ele>
        <time>2018-12-28T19:27:59Z</time>
      </trkpt>
      <trkpt lat="36.400390" lon="-117.280050">
        <ele>1511.195</ele>
        <time>2018-12-28T19:28:19Z</time>
      </trkpt>
      <trkpt lat="36.400980" lon="-117.279950">
        <ele>1510.440</ele>
        <time>2018-12-28T19:28:39Z</time>
      </trkpt>
      <trkpt lat="36.401440" lon="-117.279870">
        <ele>1509.910</ele>
        <time>2018-12-28T19:28:59Z</time>
      </trkpt>
      <trkpt lat="36.401890" lon="-117.279780">
        <ele>1509.784</ele>
        <time>2018-12-28T19:29:19Z</time>
      </trkpt>
      <trkpt lat="36.402110" lon="-117.279740">
        <ele>1509.678</ele>
        <time>2018-12-28T19:29:39Z</time>
      </trkpt>
      <trkpt lat="36.402460" lon="-117.279660">
        <ele>1509.597</ele>
        <time>2018-12-28T19:29:59Z</time>
      </trkpt>
      <trkpt lat="36.402900" lon="-117.279530">
        <ele>1509.412</ele>
        <time>2018-12-28T19:30:19Z</time>
      </trkpt>
      <trkpt lat="36.403280" lon="-117.279400">
        <ele>1508.988</ele>
        <time>2018-12-28T19:30:39Z</time>
      </trkpt>
      <trkpt lat="36.403700" lon="-117.279240">
        <ele>1506.924</ele>
        <time>2018-12-28T19:30:59Z</time>
      </trkpt>
      <trkpt lat="36.404270" lon="-117.279040">
        <ele>1503.026</ele>
        <time>2018-12-28T19:31:19Z</time>
      </trkpt>
      <trkpt lat="36.404730" lon="-117.278920">
        <ele>1500.108</ele>
        <time>2018-12-28T19:31:39Z</time>
      </trkpt>
      <trkpt lat="36.405020" lon="-117.278860">
        <ele>1499.091</ele>
        <time>2018-12-28T19:31:59Z</time>
      </trkpt>
      <trkpt lat="36.405550" lon="-117.278720">
        <ele>1497.159</ele>
        <time>2018-12-28T19:32:19Z</time>
      </trkpt>
      <trkpt lat="36.405830" lon="-117.278640">
        <ele>1496.144</ele>
        <time>2018-12-28T19:32:39Z</time>
      </trkpt>
      <trkpt lat="36.405940" lon="-117.278610">
        <ele>1495.584</ele>
        <time>2018-12-28T19:32:59Z</time>
      </trkpt>
      <trkpt lat="36.406020" lon="-117.278580">
        <ele>1495.118</ele>
        <time>2018-12-28T19:33:19Z</time>
      </trkpt>
      <trkpt lat="36.406070" lon="-117.278560">
        <ele>1494.772</ele>
        <time>2018-12-28T19:33:39Z</time>
      </trkpt>
      <trkpt lat="36.406120" lon="-117.278530">
        <ele>1494.491</ele>
        <time>2018-12-28T19:33:59Z</time>
      </trkpt>
      <trkpt lat="36.406210" lon="-117.278470">
        <ele>1493.416</ele>
        <time>2018-12-28T19:34:19Z</time>
      </trkpt>
      <trkpt lat="36.406320" lon="-117.278370">
        <ele>1493.052</ele>
        <time>2018-12-28T19:34:39Z</time>
      </trkpt>
      <trkpt lat="36.406420" lon="-117.278260">
        <ele>1492.553</ele>
        <time>2018-12-28T19:34:59Z</time>
      </trkpt>
      <trkpt lat="36.406590" lon="-117.278050">
        <ele>1490.908</ele>
        <time>2018-12-28T19:35:19Z</time>
      </trkpt>
      <trkpt lat="36.406880" lon="-117.277660">
        <ele>1487.908</ele>
        <time>2018-12-28T19:35:39Z</time>
      </trkpt>
      <trkpt lat="36.406970" lon="-117.277530">
        <ele>1486.938</ele>
        <time>2018-12-28T19:35:59Z</time>
      </trkpt>
      <trkpt lat="36.407000" lon="-117.277500">
        <ele>1486.516</ele>
        <time>2018-12-28T19:36:19Z</time>
      </trkpt>
      <trkpt lat="36.407030" lon="-117.277460">
        <ele>1486.111</ele>
        <time>2018-12-28T19:36:39Z</time>
      </trkpt>
      <trkpt lat="36.407050" lon="-117.277430">
        <ele>1485.941</ele>
        <time>2018-12-28T19:36:59Z</time>
      </trkpt>
      <trkpt lat="36.407080" lon="-117.277390">
        <ele>1485.455</ele>
        <time>2018-12-28T19:37:19Z</time>
      </trkpt>
      <trkpt lat="36.407110" lon="-117.277360">
        <ele>1485.149</ele>
        <time>2018-12-28T19:37:39Z</time>
      </trkpt>
      <trkpt lat="36.407140" lon="-117.277330">
        <ele>1485.088</ele>
        <time>2018-12-28T19:37:59Z</time>
      </trkpt>
      <trkpt lat="36.407170" lon="-117.277300">
        <ele>1485.053</ele>
        <time>2018-12-28T19:38:19Z</time>
      </trkpt>
      <trkpt lat="36.407200" lon="-117.277280">
        <ele>1484.831</ele>
        <time>2018-12-28T19:38:39Z</time>
      </trkpt>
      <trkpt lat="36.407220" lon="-117.277260">
        <ele>1484.861</ele>
        <time>2018-12-28T19:38:59Z</time>
      </trkpt>
      <trkpt lat="36.407240" lon="-117.277240">
        <ele>1484.807</ele>
        <time>2018-12-28T19:39:19Z</time>
      </trkpt>
      <trkpt lat="36.407260" lon="-117.277220">
        <ele>1484.708</ele>
        <time>2018-12-28T19:39:39Z</time>
      </trkpt>
      <trkpt lat="36.407290" lon="-117.277210">
        <ele>1484.556</ele>
        <time>2018-12-28T19:39:59Z</time>
      </trkpt>
      <trkpt lat="36.407310" lon="-117.277190">
        <ele>1484.554</ele>
        <time>2018-12-28T19:40:19Z</time>
      </trkpt>
      <trkpt lat="36.407330" lon="-117.277180">
        <ele>1484.469</ele>
        <time>2018-12-28T19:40:39Z</time>
      </trkpt>
      <trkpt lat="36.407350" lon="-117.277160">
        <ele>1484.369</ele>
        <time>2018-12-28T19:40:59Z</time>
      </trkpt>
      <trkpt lat="36.407380" lon="-117.277150">
        <ele>1484.153</ele>
        <time>2018-12-28T19:41:19Z</time>
      </trkpt>
      <trkpt lat="36.407400" lon="-117.277140">
        <ele>1484.097</ele>
        <time>2018-12-28T19:41:39Z</time>
      </trkpt>
      <trkpt lat="36.407430" lon="-117.277130">
        <ele>1483.716</ele>
        <time>2018-12-28T19:41:59Z</time>
      </trkpt>
      <trkpt lat="36.407450" lon="-117.277110">
        <ele>1483.621</ele>
        <time>2018-12-28T19:42:19Z</time>
      </trkpt>
      <trkpt lat="36.407480" lon="-117.277100">
        <ele>1483.369</ele>
        <time>2018-12-28T19:42:39Z</time>
      </trkpt>
      <trkpt lat="36.407500" lon="-117.277090">
        <ele>1483.204</ele>
        <time>2018-12-28T19:42:59Z</time>
      </trkpt>
      <trkpt lat="36.407530" lon="-117.277080">
        <ele>1483.024</ele>
        <time>2018-12-28T19:43:19Z</time>
      </trkpt>
      <trkpt lat="36.407550" lon="-117.277070">
        <ele>1483.008</ele>
        <time>2018-12-28T19:43:39Z</time>
      </trkpt>
      <trkpt lat="36.407570" lon="-117.277050">
        <ele>1483.279</ele>
        <time>2018-12-28T19:43:59Z</time>
      </trkpt>
      <trkpt lat="36.407600" lon="-117.277040">
        <ele>1483.047</ele>
        <time>2018-12-28T19:44:19Z</time>
      </trkpt>
      <trkpt lat="36.407630" lon="-117.277030">
        <ele>1482.992</ele>
        <time>2018-12-28T19:44:39Z</time>
      </trkpt>
      <trkpt lat="36.407650" lon="-117.277020">
        <ele>1482.892</ele>
        <time>2018-12-28T19:44:59Z</time>
      </trkpt>
      <trkpt lat="36.407680" lon="-117.277000">
        <ele>1482.716</ele>
        <time>2018-12-28T19:45:19Z</time>
      </trkpt>
      <trkpt lat="36.407710" lon="-117.276990">
        <ele>1482.470</ele>
        <time>2018-12-28T19:45:39Z</time>
      </trkpt>
      <trkpt lat="36.407730" lon="-117.276980">
        <ele>1482.399</ele>
        <time>2018-12-28T19:45:59Z</time>
      </trkpt>
      <trkpt lat="36.407760" lon="-117.276960">
        <ele>1482.234</ele>
        <time>2018-12-28T19:46:19Z</time>
      </trkpt>
      <trkpt lat="36.407780" lon="-117.276950">
        <ele>1482.011</ele>
        <time>2018-12-28T19:46:39Z</time>
      </trkpt>
      <trkpt lat="36.407810" lon="-117.276930">
        <ele>1482.021</ele>
        <time>2018-12-28T19:46:59Z</time>
      </trkpt>
      <trkpt lat="36.407840" lon="-117.276910">
        <ele>1481.903</ele>
        <time>2018-12-28T19:47:19Z</time>
      </trkpt>
      <trkpt lat="36.407860" lon="-117.276890">
        <ele>1481.908</ele>
        <time>2018-12-28T19:47:39Z</time>
      </trkpt>
      <trkpt lat="36.407890" lon="-117.276880">
        <ele>1481.664</ele>
        <time>2018-12-28T19:47:59Z</time>
      </trkpt>
      <trkpt lat="36.407920" lon="-117.276860">
        <ele>1481.572</ele>
        <time>2018-12-28T19:48:19Z</time>
      </trkpt>
      <trkpt lat="36.407940" lon="-117.276840">
        <ele>1481.697</ele>
        <time>2018-12-28T19:48:39Z</time>
      </trkpt>
      <trkpt lat="36.407970" lon="-117.276820">
        <ele>1481.427</ele>
        <time>2018-12-28T19:48:59Z</time>
      </trkpt>
      <trkpt lat="36.408000" lon="-117.276800">
        <ele>1481.211</ele>
        <time>2018-12-28T19:49:19Z</time>
      </trkpt>
      <trkpt lat="36.408060" lon="-117.276750">
        <ele>1480.685</ele>
        <time>2018-12-28T19:49:39Z</time>
      </trkpt>
      <trkpt lat="36.408180" lon="-117.276640">
        <ele>1477.514</ele>
        <time>2018-12-28T19:49:59Z</time>
      </trkpt>
      <trkpt lat="36.408300" lon="-117.276520">
        <ele>1475.839</ele>
        <time>2018-12-28T19:50:19Z</time>
      </trkpt>
      <trkpt lat="36.408390" lon="-117.276450">
        <ele>1475.897</ele>
        <time>2018-12-28T19:50:39Z</time>
      </trkpt>
      <trkpt lat="36.408440" lon="-117.276400">
        <ele>1475.223</ele>
        <time>2018-12-28T19:50:59Z</time>
      </trkpt>
      <trkpt lat="36.408480" lon="-117.276370">
        <ele>1474.425</ele>
        <time>2018-12-28T19:51:19Z</time>
      </trkpt>
      <trkpt lat="36.408520" lon="-117.276350">
        <ele>1474.208</ele>
        <time>2018-12-28T19:51:39Z</time>
      </trkpt>
      <trkpt lat="36.408560" lon="-117.276330">
        <ele>1474.042</ele>
        <time>2018-12-28T19:51:59Z</time>
      </trkpt>
      <trkpt lat="36.408600" lon="-117.276310">
        <ele>1473.810</ele>
        <time>2018-12-28T19:52:19Z</time>
      </trkpt>
      <trkpt lat="36.408650" lon="-117.276290">
        <ele>1473.595</ele>
        <time>2018-12-28T19:52:39Z</time>
      </trkpt>
      <trkpt lat="36.408690" lon="-117.276270">
        <ele>1473.315</ele>
        <time>2018-12-28T19:52:59Z</time>
      </trkpt>
      <trkpt lat="36.408730" lon="-117.276260">
        <ele>1473.169</ele>
        <time>2018-12-28T19:53:19Z</time>
      </trkpt>
      <trkpt lat="36.408780" lon="-117.276240">
        <ele>1472.983</ele>
        <time>2018-12-28T19:53:39Z</time>
      </trkpt>
      <trkpt lat="36.408820" lon="-117.276230">
        <ele>1472.722</ele>
        <time>2018-12-28T19:53:59Z</time>
      </trkpt>
      <trkpt lat="36.408920" lon="-117.276210">
        <ele>1472.137</ele>
        <time>2018-12-28T19:54:19Z</time>
      </trkpt>
      <trkpt lat="36.409020" lon="-117.276200">
        <ele>1471.453</ele>
        <time>2018-12-28T19:54:39Z</time>
      </trkpt>
      <trkpt lat="36.409170" lon="-117.276190">
        <ele>1470.904</ele>
        <time>2018-12-28T19:54:59Z</time>
      </trkpt>
      <trkpt lat="36.409320" lon="-117.276190">
        <ele>1470.314</ele>
        <time>2018-12-28T19:55:19Z</time>
      </trkpt>
      <trkpt lat="36.409420" lon="-117.276180">
        <ele>1469.808</ele>
        <time>2018-12-28T19:55:39Z</time>
      </trkpt>
      <trkpt lat="36.409490" lon="-117.276170">
        <ele>1469.528</ele>
        <time>2018-12-28T19:55:59Z</time>
      </trkpt>
      <trkpt lat="36.409560" lon="-117.276150">
        <ele>1469.486</ele>
        <time>2018-12-28T19:56:19Z</time>
      </trkpt>
      <trkpt lat="36.409620" lon="-117.276130">
        <ele>1469.241</ele>
        <time>2018-12-28T19:56:39Z</time>
      </trkpt>
      <trkpt lat="36.409680" lon="-117.276120">
        <ele>1468.771</ele>
        <time>2018-12-28T19:56:59Z</time>
      </trkpt>
      <trkpt lat="36.409750" lon="-117.276100">
        <ele>1468.375</ele>
        <time>2018-12-28T19:57:19Z</time>
      </trkpt>
      <trkpt lat="36.409810" lon="-117.276080">
        <ele>1468.079</ele>
        <time>2018-12-28T19:57:39Z</time>
      </trkpt>
      <trkpt lat="36.409870" lon="-117.276050">
        <ele>1467.888</ele>
        <time>2018-12-28T19:57:59Z</time>
      </trkpt>
      <trkpt lat="36.409940" lon="-117.276030">
        <ele>1467.473</ele>
        <time>2018-12-28T19:58:19Z</time>
      </trkpt>
      <trkpt lat="36.410000" lon="-117.276010">
        <ele>1467.033</ele>
        <time>2018-12-28T19:58:39Z</time>
      </trkpt>
      <trkpt lat="36.410080" lon="-117.275980">
        <ele>1466.423</ele>
        <time>2018-12-28T19:58:59Z</time>
      </trkpt>
      <trkpt lat="36.410240" lon="-117.275900">
        <ele>1464.815</ele>
        <time>2018-12-28T19:59:19Z</time>
      </trkpt>
      <trkpt lat="36.410330" lon="-117.275850">
        <ele>1463.808</ele>
        <time>2018-12-28T19:59:39Z</time>
      </trkpt>
      <trkpt lat="36.410510" lon="-117.275760">
        <ele>1462.096</ele>
        <time>2018-12-28T19:59:59Z</time>
      </trkpt>
      <trkpt lat="36.410690" lon="-117.275670">
        <ele>1460.924</ele>
        <time>2018-12-28T20:00:19Z</time>
      </trkpt>
      <trkpt lat="36.410800" lon="-117.275610">
        <ele>1460.359</ele>
        <time>2018-12-28T20:00:39Z</time>
      </trkpt>
      <trkpt lat="36.410910" lon="-117.275550">
        <ele>1459.789</ele>
        <time>2018-12-28T20:00:59Z</time>
      </trkpt>
      <trkpt lat="36.411010" lon="-117.275500">
        <ele>1459.113</ele>
        <time>2018-12-28T20:01:19Z</time>
      </trkpt>
      <trkpt lat="36.411120" lon="-117.275450">
        <ele>1458.697</ele>
        <time>2018-12-28T20:01:39Z</time>
      </trkpt>
      <trkpt lat="36.411230" lon="-117.275400">
        <ele>1458.166</ele>
        <time>2018-12-28T20:01:59Z</time>
      </trkpt>
      <trkpt lat="36.411340" lon="-117.275350">
        <ele>1457.741</ele>
        <time>2018-12-28T20:02:19Z</time>
      </trkpt>
      <trkpt lat="36.411450" lon="-117.275300">
        <ele>1457.328</ele>
        <time>2018-12-28T20:02:39Z</time>
      </trkpt>
      <trkpt lat="36.411560" lon="-117.275250">
        <ele>1456.989</ele>
        <time>2018-12-28T20:02:59Z</time>
      </trkpt>
      <trkpt lat="36.411660" lon="-117.275210">
        <ele>1456.317</ele>
        <time>2018-12-28T20:03:19Z</time>
      </trkpt>
      <trkpt lat="36.411760" lon="-117.275170">
        <ele>1455.608</ele>
        <time>2018-12-28T20:03:39Z</time>
      </trkpt>
      <trkpt lat="36.411850" lon="-117.275140">
        <ele>1454.815</ele>
        <time>2018-12-28T20:03:59Z</time>
      </trkpt>
      <trkpt lat="36.411950" lon="-117.275100">
        <ele>1453.633</ele>
        <time>2018-12-28T20:04:19Z</time>
      </trkpt>
      <trkpt lat="36.412050" lon="-117.275070">
        <ele>1452.328</ele>
        <time>2018-12-28T20:04:39Z</time>
      </trkpt>
      <trkpt lat="36.412150" lon="-117.275030">
        <ele>1451.488</ele>
        <time>2018-12-28T20:04:59Z</time>
      </trkpt>
      <trkpt lat="36.412250" lon="-117.275000">
        <ele>1450.732</ele>
        <time>2018-12-28T20:05:19Z</time>
      </trkpt>
      <trkpt lat="36.412350" lon="-117.274970">
        <ele>1449.936</ele>
        <time>2018-12-28T20:05:39Z</time>
      </trkpt>
      <trkpt lat="36.412440" lon="-117.274940">
        <ele>1449.685</ele>
        <time>2018-12-28T20:05:59Z</time>
      </trkpt>
      <trkpt lat="36.412540" lon="-117.274910">
        <ele>1449.210</ele>
        <time>2018-12-28T20:06:19Z</time>
      </trkpt>
      <trkpt lat="36.412640" lon="-117.274880">
        <ele>1448.931</ele>
        <time>2018-12-28T20:06:39Z</time>
      </trkpt>
      <trkpt lat="36.412730" lon="-117.274850">
        <ele>1448.761</ele>
        <time>2018-12-28T20:06:59Z</time>
      </trkpt>
      <trkpt lat="36.412830" lon="-117.274820">
        <ele>1448.507</ele>
        <time>2018-12-28T20:07:19Z</time>
      </trkpt>
      <trkpt lat="36.412930" lon="-117.274790">
        <ele>1448.308</ele>
        <time>2018-12-28T20:07:39Z</time>
      </trkpt>
      <trkpt lat="36.413020" lon="-117.274760">
        <ele>1447.886</ele>
        <time>2018-12-28T20:07:59Z</time>
      </trkpt>
      <trkpt lat="36.413120" lon="-117.274730">
        <ele>1447.274</ele>
        <time>2018-12-28T20:08:19Z</time>
      </trkpt>
      <trkpt lat="36.413220" lon="-117.274690">
        <ele>1446.779</ele>
        <time>2018-12-28T20:08:39Z</time>
      </trkpt>
      <trkpt lat="36.413320" lon="-117.274660">
        <ele>1445.999</ele>
        <time>2018-12-28T20:08:59Z</time>
      </trkpt>
      <trkpt lat="36.413430" lon="-117.274630">
        <ele>1445.023</ele>
        <time>2018-12-28T20:09:19Z</time>
      </trkpt>
      <trkpt lat="36.413530" lon="-117.274590">
        <ele>1444.397</ele>
        <time>2018-12-28T20:09:39Z</time>
      </trkpt>
      <trkpt lat="36.413630" lon="-117.274560">
        <ele>1443.726</ele>
        <time>2018-12-28T20:09:59Z</time>
      </trkpt>
      <trkpt lat="36.413730" lon="-117.274530">
        <ele>1443.051</ele>
        <time>2018-12-28T20:10:19Z</time>
      </trkpt>
      <trkpt lat="36.413840" lon="-117.274490">
        <ele>1442.453</ele>
        <time>2018-12-28T20:10:39Z</time>
      </trkpt>
      <trkpt lat="36.413940" lon="-117.274460">
        <ele>1441.904</ele>
        <time>2018-12-28T20:10:59Z</time>
      </trkpt>
      <trkpt lat="36.414000" lon="-117.274440">
        <ele>1441.714</ele>
        <time>2018-12-28T20:11:19Z</time>
      </trkpt>
      <trkpt lat="36.414070" lon="-117.274420">
        <ele>1441.408</ele>
        <time>2018-12-28T20:11:39Z</time>
      </trkpt>
      <trkpt lat="36.414130" lon="-117.274400">
        <ele>1441.398</ele>
        <time>2018-12-28T20:11:59Z</time>
      </trkpt>
      <trkpt lat="36.414200" lon="-117.274380">
        <ele>1441.136</ele>
        <time>2018-12-28T20:12:19Z</time>
      </trkpt>
      <trkpt lat="36.414260" lon="-117.274360">
        <ele>1441.151</ele>
        <time>2018-12-28T20:12:39Z</time>
      </trkpt>
      <trkpt lat="36.414330" lon="-117.274340">
        <ele>1441.031</ele>
        <time>2018-12-28T20:12:59Z</time>
      </trkpt>
      <trkpt lat="36.414390" lon="-117.274310">
        <ele>1441.165</ele>
        <time>2018-12-28T20:13:19Z</time>
      </trkpt>
      <trkpt lat="36.414460" lon="-117.274290">
        <ele>1441.139</ele>
        <time>2018-12-28T20:13:39Z</time>
      </trkpt>
      <trkpt lat="36.414480" lon="-117.274290">
        <ele>1441.028</ele>
        <time>2018-12-28T20:13:59Z</time>
      </trkpt>
      <trkpt lat="36.414500" lon="-117.274280">
        <ele>1441.033</ele>
        <time>2018-12-28T20:14:19Z</time>
      </trkpt>
      <trkpt lat="36.414520" lon="-117.274270">
        <ele>1440.912</ele>
        <time>2018-12-28T20:14:39Z</time>
      </trkpt>
      <trkpt lat="36.414540" lon="-117.274260">
        <ele>1440.932</ele>
        <time>2018-12-28T20:14:59Z</time>
      </trkpt>
      <trkpt lat="36.414560" lon="-117.274250">
        <ele>1440.805</ele>
        <time>2018-12-28T20:15:19Z</time>
      </trkpt>
      <trkpt lat="36.414580" lon="-117.274240">
        <ele>1440.808</ele>
        <time>2018-12-28T20:15:39Z</time>
      </trkpt>
      <trkpt lat="36.414610" lon="-117.274230">
        <ele>1440.284</ele>
        <time>2018-12-28T20:15:59Z</time>
      </trkpt>
      <trkpt lat="36.414630" lon="-117.274220">
        <ele>1439.842</ele>
        <time>2018-12-28T20:16:19Z</time>
      </trkpt>
      <trkpt lat="36.414650" lon="-117.274210">
        <ele>1439.437</ele>
        <time>2018-12-28T20:16:39Z</time>
      </trkpt>
      <trkpt lat="36.414680" lon="-117.274200">
        <ele>1438.977</ele>
        <time>2018-12-28T20:16:59Z</time>
      </trkpt>
      <trkpt lat="36.414700" lon="-117.274180">
        <ele>1438.661</ele>
        <time>2018-12-28T20:17:19Z</time>
      </trkpt>
      <trkpt lat="36.414730" lon="-117.274170">
        <ele>1438.175</ele>
        <time>2018-12-28T20:17:39Z</time>
      </trkpt>
      <trkpt lat="36.414750" lon="-117.274150">
        <ele>1437.944</ele>
        <time>2018-12-28T20:17:59Z</time>
      </trkpt>
      <trkpt lat="36.414780" lon="-117.274140">
        <ele>1437.519</ele>
        <time>2018-12-28T20:18:19Z</time>
      </trkpt>
      <trkpt lat="36.414800" lon="-117.274120">
        <ele>1437.465</ele>
        <time>2018-12-28T20:18:39Z</time>
      </trkpt>
      <trkpt lat="36.414820" lon="-117.274110">
        <ele>1437.168</ele>
        <time>2018-12-28T20:18:59Z</time>
      </trkpt>
      <trkpt lat="36.414920" lon="-117.274040">
        <ele>1436.514</ele>
        <time>2018-12-28T20:19:19Z</time>
      </trkpt>
      <trkpt lat="36.415010" lon="-117.273960">
        <ele>1436.108</ele>
        <time>2018-12-28T20:19:39Z</time>
      </trkpt>
      <trkpt lat="36.415100" lon="-117.273890">
        <ele>1435.959</ele>
        <time>2018-12-28T20:19:59Z</time>
      </trkpt>
      <trkpt lat="36.415190" lon="-117.273820">
        <ele>1435.617</ele>
        <time>2018-12-28T20:20:19Z</time>
      </trkpt>
      <trkpt lat="36.415280" lon="-117.273750">
        <ele>1435.082</ele>
        <time>2018-12-28T20:20:39Z</time>
      </trkpt>
      <trkpt lat="36.415370" lon="-117.273680">
        <ele>1434.162</ele>
        <time>2018-12-28T20:20:59Z</time>
      </trkpt>
      <trkpt lat="36.415460" lon="-117.273600">
        <ele>1433.226</ele>
        <time>2018-12-28T20:21:19Z</time>
      </trkpt>
      <trkpt lat="36.415550" lon="-117.273530">
        <ele>1431.430</ele>
        <time>2018-12-28T20:21:39Z</time>
      </trkpt>
      <trkpt lat="36.415640" lon="-117.273460">
        <ele>1428.939</ele>
        <time>2018-12-28T20:21:59Z</time>
      </trkpt>
      <trkpt lat="36.415730" lon="-117.273390">
        <ele>1427.234</ele>
        <time>2018-12-28T20:22:19Z</time>
      </trkpt>
      <trkpt lat="36.415820" lon="-117.273320">
        <ele>1426.813</ele>
        <time>2018-12-28T20:22:39Z</time>
      </trkpt>
      <trkpt lat="36.415910" lon="-117.273240">
        <ele>1426.343</ele>
        <time>2018-12-28T20:22:59Z</time>
      </trkpt>
      <trkpt lat="36.416000" lon="-117.273170">
        <ele>1425.807</ele>
        <time>2018-12-28T20:23:19Z</time>
      </trkpt>
      <trkpt lat="36.416090" lon="-117.273100">
        <ele>1425.308</ele>
        <time>2018-12-28T20:23:39Z</time>
      </trkpt>
      <trkpt lat="36.416180" lon="-117.273030">
        <ele>1424.974</ele>
        <time>2018-12-28T20:23:59Z</time>
      </trkpt>
      <trkpt lat="36.416270" lon="-117.272950">
        <ele>1424.512</ele>
        <time>2018-12-28T20:24:19Z</time>
      </trkpt>
      <trkpt lat="36.416350" lon="-117.272890">
        <ele>1424.067</ele>
        <time>2018-12-28T20:24:39Z</time>
      </trkpt>
      <trkpt lat="36.416420" lon="-117.272830">
        <ele>1423.677</ele>
        <time>2018-12-28T20:24:59Z</time>
      </trkpt>
      <trkpt lat="36.416500" lon="-117.272760">
        <ele>1423.261</ele>
        <time>2018-12-28T20:25:19Z</time>
      </trkpt>
      <trkpt lat="36.416580" lon="-117.272700">
        <ele>1422.455</ele>
        <time>2018-12-28T20:25:39Z</time>
      </trkpt>
      <trkpt lat="36.416650" lon="-117.272640">
        <ele>1421.354</ele>
        <time>2018-12-28T20:25:59Z</time>
      </trkpt>
      <trkpt lat="36.416730" lon="-117.272580">
        <ele>1419.749</ele>
        <time>2018-12-28T20:26:19Z</time>
      </trkpt>
      <trkpt lat="36.416810" lon="-117.272510">
        <ele>1417.926</ele>
        <time>2018-12-28T20:26:39Z</time>
      </trkpt>
      <trkpt lat="36.416880" lon="-117.272450">
        <ele>1417.047</ele>
        <time>2018-12-28T20:26:59Z</time>
      </trkpt>
      <trkpt lat="36.417000" lon="-117.272360">
        <ele>1415.311</ele>
        <time>2018-12-28T20:27:19Z</time>
      </trkpt>
      <trkpt lat="36.417120" lon="-117.272260">
        <ele>1414.408</ele>
        <time>2018-12-28T20:27:39Z</time>
      </trkpt>
      <trkpt lat="36.417240" lon="-117.272160">
        <ele>1413.835</ele>
        <time>2018-12-28T20:27:59Z</time>
      </trkpt>
      <trkpt lat="36.417360" lon="-117.272070">
        <ele>1413.123</ele>
        <time>2018-12-28T20:28:19Z</time>
      </trkpt>
      <trkpt lat="36.417480" lon="-117.271970">
        <ele>1412.158</ele>
        <time>2018-12-28T20:28:39Z</time>
      </trkpt>
      <trkpt lat="36.417590" lon="-117.271880">
        <ele>1411.138</ele>
        <time>2018-12-28T20:28:59Z</time>
      </trkpt>
      <trkpt lat="36.417710" lon="-117.271780">
        <ele>1410.192</ele>
        <time>2018-12-28T20:29:19Z</time>
      </trkpt>
      <trkpt lat="36.417830" lon="-117.271690">
        <ele>1409.246</ele>
        <time>2018-12-28T20:29:39Z</time>
      </trkpt>
      <trkpt lat="36.417890" lon="-117.271650">
        <ele>1408.825</ele>
        <time>2018-12-28T20:29:59Z</time>
      </trkpt>
      <trkpt lat="36.417940" lon="-117.271600">
        <ele>1408.560</ele>
        <time>2018-12-28T20:30:19Z</time>
      </trkpt>
      <trkpt lat="36.418000" lon="-117.271560">
        <ele>1408.216</ele>
        <time>2018-12-28T20:30:39Z</time>
      </trkpt>
      <trkpt lat="36.418060" lon="-117.271510">
        <ele>1407.876</ele>
        <time>2018-12-28T20:30:59Z</time>
      </trkpt>
      <trkpt lat="36.418110" lon="-117.271470">
        <ele>1407.513</ele>
        <time>2018-12-28T20:31:19Z</time>
      </trkpt>
      <trkpt lat="36.418170" lon="-117.271420">
        <ele>1407.008</ele>
        <time>2018-12-28T20:31:39Z</time>
      </trkpt>
      <trkpt lat="36.418220" lon="-117.271380">
        <ele>1406.624</ele>
        <time>2018-12-28T20:31:59Z</time>
      </trkpt>
      <trkpt lat="36.418280" lon="-117.271340">
        <ele>1406.012</ele>
        <time>2018-12-28T20:32:19Z</time>
      </trkpt>
      <trkpt lat="36.418350" lon="-117.271280">
        <ele>1405.347</ele>
        <time>2018-12-28T20:32:39Z</time>
      </trkpt>
      <trkpt lat="36.418410" lon="-117.271230">
        <ele>1404.517</ele>
        <time>2018-12-28T20:32:59Z</time>
      </trkpt>
      <trkpt lat="36.418480" lon="-117.271180">
        <ele>1403.631</ele>
        <time>2018-12-28T20:33:19Z</time>
      </trkpt>
      <trkpt lat="36.418550" lon="-117.271120">
        <ele>1402.885</ele>
        <time>2018-12-28T20:33:39Z</time>
      </trkpt>
      <trkpt lat="36.418620" lon="-117.271070">
        <ele>1402.154</ele>
        <time>2018-12-28T20:33:59Z</time>
      </trkpt>
      <trkpt lat="36.418690" lon="-117.271020">
        <ele>1401.669</ele>
        <time>2018-12-28T20:34:19Z</time>
      </trkpt>
      <trkpt lat="36.418750" lon="-117.270960">
        <ele>1401.475</ele>
        <time>2018-12-28T20:34:39Z</time>
      </trkpt>
      <trkpt lat="36.418820" lon="-117.270910">
        <ele>1401.128</ele>
        <time>2018-12-28T20:34:59Z</time>
      </trkpt>
      <trkpt lat="36.418900" lon="-117.270860">
        <ele>1400.620</ele>
        <time>2018-12-28T20:35:19Z</time>
      </trkpt>
      <trkpt lat="36.419000" lon="-117.270790">
        <ele>1400.208</ele>
        <time>2018-12-28T20:35:39Z</time>
      </trkpt>
      <trkpt lat="36.419120" lon="-117.270720">
        <ele>1399.150</ele>
        <time>2018-12-28T20:35:59Z</time>
      </trkpt>
      <trkpt lat="36.419190" lon="-117.270680">
        <ele>1398.248</ele>
        <time>2018-12-28T20:36:19Z</time>
      </trkpt>
      <trkpt lat="36.419250" lon="-117.270640">
        <ele>1397.593</ele>
        <time>2018-12-28T20:36:39Z</time>
      </trkpt>
      <trkpt lat="36.419290" lon="-117.270620">
        <ele>1397.023</ele>
        <time>2018-12-28T20:36:59Z</time>
      </trkpt>
      <trkpt lat="36.419330" lon="-117.270590">
        <ele>1396.697</ele>
        <time>2018-12-28T20:37:19Z</time>
      </trkpt>
      <trkpt lat="36.419370" lon="-117.270560">
        <ele>1396.391</ele>
        <time>2018-12-28T20:37:39Z</time>
      </trkpt>
      <trkpt lat="36.419410" lon="-117.270530">
        <ele>1396.010</ele>
        <time>2018-12-28T20:37:59Z</time>
      </trkpt>
      <trkpt lat="36.419450" lon="-117.270490">
        <ele>1395.665</ele>
        <time>2018-12-28T20:38:19Z</time>
      </trkpt>
      <trkpt lat="36.419490" lon="-117.270460">
        <ele>1395.288</ele>
        <time>2018-12-28T20:38:39Z</time>
      </trkpt>
      <trkpt lat="36.419520" lon="-117.270420">
        <ele>1394.924</ele>
        <time>2018-12-28T20:38:59Z</time>
      </trkpt>
      <trkpt lat="36.419560" lon="-117.270380">
        <ele>1394.626</ele>
        <time>2018-12-28T20:39:19Z</time>
      </trkpt>
      <trkpt lat="36.419600" lon="-117.270320">
        <ele>1394.508</ele>
        <time>2018-12-28T20:39:39Z</time>
      </trkpt>
      <trkpt lat="36.419640" lon="-117.270260">
        <ele>1394.571</ele>
        <time>2018-12-28T20:39:59Z</time>
      </trkpt>
      <trkpt lat="36.419680" lon="-117.270200">
        <ele>1394.459</ele>
        <time>2018-12-28T20:40:19Z</time>
      </trkpt>
      <trkpt lat="36.419710" lon="-117.270140">
        <ele>1394.524</ele>
        <time>2018-12-28T20:40:39Z</time>
      </trkpt>
      <trkpt lat="36.419740" lon="-117.270080">
        <ele>1394.274</ele>
        <time>2018-12-28T20:40:59Z</time>
      </trkpt>
      <trkpt lat="36.419770" lon="-117.270010">
        <ele>1393.828</ele>
        <time>2018-12-28T20:41:19Z</time>
      </trkpt>
      <trkpt lat="36.419790" lon="-117.269940">
        <ele>1393.672</ele>
        <time>2018-12-28T20:41:39Z</time>
      </trkpt>
      <trkpt lat="36.419820" lon="-117.269870">
        <ele>1393.151</ele>
        <time>2018-12-28T20:41:59Z</time>
      </trkpt>
      <trkpt lat="36.419820" lon="-117.269830">
        <ele>1392.746</ele>
        <time>2018-12-28T20:42:19Z</time>
      </trkpt>
      <trkpt lat="36.419830" lon="-117.269790">
        <ele>1392.164</ele>
        <time>2018-12-28T20:42:39Z</time>
      </trkpt>
      <trkpt lat="36.419840" lon="-117.269750">
        <ele>1391.406</ele>
        <time>2018-12-28T20:42:59Z</time>
      </trkpt>
      <trkpt lat="36.419850" lon="-117.269710">
        <ele>1390.716</ele>
        <time>2018-12-28T20:43:19Z</time>
      </trkpt>
      <trkpt lat="36.419860" lon="-117.269670">
        <ele>1390.008</ele>
        <time>2018-12-28T20:43:39Z</time>
      </trkpt>
      <trkpt lat="36.419860" lon="-117.269630">
        <ele>1389.519</ele>
        <time>2018-12-28T20:43:59Z</time>
      </trkpt>
      <trkpt lat="36.419870" lon="-117.269590">
        <ele>1388.997</ele>
        <time>2018-12-28T20:44:19Z</time>
      </trkpt>
      <trkpt lat="36.419880" lon="-117.269550">
        <ele>1388.432</ele>
        <time>2018-12-28T20:44:39Z</time>
      </trkpt>
      <trkpt lat="36.419880" lon="-117.269510">
        <ele>1388.042</ele>
        <time>2018-12-28T20:44:59Z</time>
      </trkpt>
      <trkpt lat="36.419890" lon="-117.269470">
        <ele>1387.696</ele>
        <time>2018-12-28T20:45:19Z</time>
      </trkpt>
      <trkpt lat="36.419890" lon="-117.269440">
        <ele>1387.340</ele>
        <time>2018-12-28T20:45:39Z</time>
      </trkpt>
      <trkpt lat="36.419900" lon="-117.269400">
        <ele>1386.879</ele>
        <time>2018-12-28T20:45:59Z</time>
      </trkpt>
      <trkpt lat="36.419900" lon="-117.269360">
        <ele>1386.544</ele>
        <time>2018-12-28T20:46:19Z</time>
      </trkpt>
      <trkpt lat="36.419900" lon="-117.269320">
        <ele>1386.294</ele>
        <time>2018-12-28T20:46:39Z</time>
      </trkpt>
      <trkpt lat="36.419910" lon="-117.269290">
        <ele>1385.857</ele>
        <time>2018-12-28T20:46:59Z</time>
      </trkpt>
      <trkpt lat="36.419910" lon="-117.269250">
        <ele>1385.622</ele>
        <time>2018-12-28T20:47:19Z</time>
      </trkpt>
      <trkpt lat="36.419910" lon="-117.269210">
        <ele>1385.308</ele>
        <time>2018-12-28T20:47:39Z</time>
      </trkpt>
      <trkpt lat="36.419910" lon="-117.269180">
        <ele>1385.292</ele>
        <time>2018-12-28T20:47:59Z</time>
      </trkpt>
      <trkpt lat="36.419910" lon="-117.269140">
        <ele>1384.970</ele>
        <time>2018-12-28T20:48:19Z</time>
      </trkpt>
      <trkpt lat="36.419910" lon="-117.269110">
        <ele>1384.795</ele>
        <time>2018-12-28T20:48:39Z</time>
      </trkpt>
      <trkpt lat="36.419910" lon="-117.269070">
        <ele>1384.565</ele>
        <time>2018-12-28T20:48:59Z</time>
      </trkpt>
      <trkpt lat="36.419910" lon="-117.269040">
        <ele>1384.319</ele>
        <time>2018-12-28T20:49:19Z</time>
      </trkpt>
      <trkpt lat="36.419910" lon="-117.269000">
        <ele>1384.013</ele>
        <time>2018-12-28T20:49:39Z</time>
      </trkpt>
      <trkpt lat="36.419900" lon="-117.268970">
        <ele>1384.052</ele>
        <time>2018-12-28T20:49:59Z</time>
      </trkpt>
      <trkpt lat="36.419900" lon="-117.268950">
        <ele>1383.897</ele>
        <time>2018-12-28T20:50:19Z</time>
      </trkpt>
      <trkpt lat="36.419900" lon="-117.268940">
        <ele>1383.828</ele>
        <time>2018-12-28T20:50:39Z</time>
      </trkpt>
      <trkpt lat="36.419900" lon="-117.268930">
        <ele>1383.789</ele>
        <time>2018-12-28T20:50:59Z</time>
      </trkpt>
      <trkpt lat="36.419900" lon="-117.268910">
        <ele>1383.617</ele>
        <time>2018-12-28T20:51:19Z</time>
      </trkpt>
      <trkpt lat="36.419900" lon="-117.268900">
        <ele>1383.508</ele>
        <time>2018-12-28T20:51:39Z</time>
      </trkpt>
      <trkpt lat="36.419890" lon="-117.268890">
        <ele>1383.635</ele>
        <time>2018-12-28T20:51:59Z</time>
      </trkpt>
      <trkpt lat="36.419890" lon="-117.268870">
        <ele>1383.423</ele>
        <time>2018-12-28T20:52:19Z</time>
      </trkpt>
      <trkpt lat="36.419890" lon="-117.268860">
        <ele>1383.468</ele>
        <time>2018-12-28T20:52:39Z</time>
      </trkpt>
      <trkpt lat="36.419890" lon="-117.268840">
        <ele>1383.248</ele>
        <time>2018-12-28T20:52:59Z</time>
      </trkpt>
      <trkpt lat="36.419880" lon="-117.268830">
        <ele>1383.322</ele>
        <time>2018-12-28T20:53:19Z</time>
      </trkpt>
      <trkpt lat="36.419880" lon="-117.268810">
        <ele>1383.236</ele>
        <time>2018-12-28T20:53:39Z</time>
      </trkpt>
      <trkpt lat="36.419870" lon="-117.268790">
        <ele>1383.255</ele>
        <time>2018-12-28T20:53:59Z</time>
      </trkpt>
      <trkpt lat="36.419870" lon="-117.268770">
        <ele>1383.060</ele>
        <time>2018-12-28T20:54:19Z</time>
      </trkpt>
      <trkpt lat="36.419870" lon="-117.268760">
        <ele>1383.052</ele>
        <time>2018-12-28T20:54:39Z</time>
      </trkpt>
      <trkpt lat="36.419860" lon="-117.268740">
        <ele>1382.953</ele>
        <time>2018-12-28T20:54:59Z</time>
      </trkpt>
      <trkpt lat="36.419860" lon="-117.268720">
        <ele>1382.808</ele>
        <time>2018-12-28T20:55:19Z</time>
      </trkpt>
      <trkpt lat="36.419850" lon="-117.268710">
        <ele>1382.908</ele>
        <time>2018-12-28T20:55:39Z</time>
      </trkpt>
      <trkpt lat="36.419850" lon="-117.268690">
        <ele>1382.818</ele>
        <time>2018-12-28T20:55:59Z</time>
      </trkpt>
      <trkpt lat="36.419840" lon="-117.268680">
        <ele>1382.936</ele>
        <time>2018-12-28T20:56:19Z</time>
      </trkpt>
      <trkpt lat="36.419840" lon="-117.268660">
        <ele>1382.891</ele>
        <time>2018-12-28T20:56:39Z</time>
      </trkpt>
      <trkpt lat="36.419830" lon="-117.268650">
        <ele>1382.911</ele>
        <time>2018-12-28T20:56:59Z</time>
      </trkpt>
      <trkpt lat="36.419830" lon="-117.268630">
        <ele>1382.825</ele>
        <time>2018-12-28T20:57:19Z</time>
      </trkpt>
      <trkpt lat="36.419820" lon="-117.268610">
        <ele>1382.869</ele>
        <time>2018-12-28T20:57:39Z</time>
      </trkpt>
      <trkpt lat="36.419820" lon="-117.268600">
        <ele>1382.778</ele>
        <time>2018-12-28T20:57:59Z</time>
      </trkpt>
      <trkpt lat="36.419810" lon="-117.268580">
        <ele>1382.853</ele>
        <time>2018-12-28T20:58:19Z</time>
      </trkpt>
      <trkpt lat="36.419800" lon="-117.268560">
        <ele>1382.927</ele>
        <time>2018-12-28T20:58:39Z</time>
      </trkpt>
      <trkpt lat="36.419800" lon="-117.268540">
        <ele>1382.768</ele>
        <time>2018-12-28T20:58:59Z</time>
      </trkpt>
      <trkpt lat="36.419790" lon="-117.268520">
        <ele>1382.814</ele>
        <time>2018-12-28T20:59:19Z</time>
      </trkpt>
      <trkpt lat="36.419790" lon="-117.268500">
        <ele>1382.608</ele>
        <time>2018-12-28T20:59:39Z</time>
      </trkpt>
      <trkpt lat="36.419780" lon="-117.268490">
        <ele>1382.735</ele>
        <time>2018-12-28T20:59:59Z</time>
      </trkpt>
      <trkpt lat="36.419770" lon="-117.268470">
        <ele>1382.873</ele>
        <time>2018-12-28T21:00:19Z</time>
      </trkpt>
      <trkpt lat="36.419770" lon="-117.268450">
        <ele>1382.788</ele>
        <time>2018-12-28T21:00:39Z</time>
      </trkpt>
      <trkpt lat="36.419760" lon="-117.268420">
        <ele>1382.948</ele>
        <time>2018-12-28T21:00:59Z</time>
      </trkpt>
      <trkpt lat="36.419750" lon="-117.268390">
        <ele>1383.062</ele>
        <time>2018-12-28T21:01:19Z</time>
      </trkpt>
      <trkpt lat="36.419740" lon="-117.268370">
        <ele>1383.186</ele>
        <time>2018-12-28T21:01:39Z</time>
      </trkpt>
      <trkpt lat="36.419740" lon="-117.268340">
        <ele>1383.075</ele>
        <time>2018-12-28T21:01:59Z</time>
      </trkpt>
      <trkpt lat="36.419730" lon="-117.268310">
        <ele>1383.220</ele>
        <time>2018-12-28T21:02:19Z</time>
      </trkpt>
      <trkpt lat="36.419720" lon="-117.268280">
        <ele>1383.374</ele>
        <time>2018-12-28T21:02:39Z</time>
      </trkpt>
      <trkpt lat="36.419710" lon="-117.268260">
        <ele>1383.456</ele>
        <time>2018-12-28T21:02:59Z</time>
      </trkpt>
      <trkpt lat="36.419700" lon="-117.268230">
        <ele>1383.521</ele>
        <time>2018-12-28T21:03:19Z</time>
      </trkpt>
      <trkpt lat="36.419690" lon="-117.268190">
        <ele>1383.508</ele>
        <time>2018-12-28T21:03:39Z</time>
      </trkpt>
      <trkpt lat="36.419680" lon="-117.268140">
        <ele>1383.510</ele>
        <time>2018-12-28T21:03:59Z</time>
      </trkpt>
      <trkpt lat="36.419670" lon="-117.268100">
        <ele>1383.558</ele>
        <time>2018-12-28T21:04:19Z</time>
      </trkpt>
      <trkpt lat="36.419660" lon="-117.268050">
        <ele>1383.453</ele>
        <time>2018-12-28T21:04:39Z</time>
      </trkpt>
      <trkpt lat="36.419660" lon="-117.268000">
        <ele>1383.163</ele>
        <time>2018-12-28T21:04:59Z</time>
      </trkpt>
      <trkpt lat="36.419650" lon="-117.267960">
        <ele>1383.197</ele>
        <time>2018-12-28T21:05:19Z</time>
      </trkpt>
      <trkpt lat="36.419650" lon="-117.267910">
        <ele>1382.721</ele>
        <time>2018-12-28T21:05:39Z</time>
      </trkpt>
      <trkpt lat="36.419650" lon="-117.267870">
        <ele>1382.130</ele>
        <time>2018-12-28T21:05:59Z</time>
      </trkpt>
      <trkpt lat="36.419650" lon="-117.267830">
        <ele>1381.425</ele>
        <time>2018-12-28T21:06:19Z</time>
      </trkpt>
      <trkpt lat="36.419650" lon="-117.267790">
        <ele>1380.851</ele>
        <time>2018-12-28T21:06:39Z</time>
      </trkpt>
      <trkpt lat="36.419660" lon="-117.267750">
        <ele>1380.101</ele>
        <time>2018-12-28T21:06:59Z</time>
      </trkpt>
      <trkpt lat="36.419660" lon="-117.267710">
        <ele>1379.511</ele>
        <time>2018-12-28T21:07:19Z</time>
      </trkpt>
      <trkpt lat="36.419670" lon="-117.267680">
        <ele>1379.008</ele>
        <time>2018-12-28T21:07:39Z</time>
      </trkpt>
      <trkpt lat="36.419670" lon="-117.267640">
        <ele>1378.448</ele>
        <time>2018-12-28T21:07:59Z</time>
      </trkpt>
      <trkpt lat="36.419680" lon="-117.267600">
        <ele>1378.286</ele>
        <time>2018-12-28T21:08:19Z</time>
      </trkpt>
      <trkpt lat="36.419690" lon="-117.267570">
        <ele>1378.161</ele>
        <time>2018-12-28T21:08:39Z</time>
      </trkpt>
      <trkpt lat="36.419700" lon="-117.267530">
        <ele>1378.041</ele>
        <time>2018-12-28T21:08:59Z</time>
      </trkpt>
      <trkpt lat="36.419710" lon="-117.267490">
        <ele>1377.855</ele>
        <time>2018-12-28T21:09:19Z</time>
      </trkpt>
      <trkpt lat="36.419730" lon="-117.267460">
        <ele>1377.679</ele>
        <time>2018-12-28T21:09:39Z</time>
      </trkpt>
      <trkpt lat="36.419740" lon="-117.267420">
        <ele>1377.438</ele>
        <time>2018-12-28T21:09:59Z</time>
      </trkpt>
      <trkpt lat="36.419750" lon="-117.267390">
        <ele>1377.273</ele>
        <time>2018-12-28T21:10:19Z</time>
      </trkpt>
      <trkpt lat="36.419770" lon="-117.267350">
        <ele>1376.954</ele>
        <time>2018-12-28T21:10:39Z</time>
      </trkpt>
      <trkpt lat="36.419780" lon="-117.267320">
        <ele>1376.756</ele>
        <time>2018-12-28T21:10:59Z</time>
      </trkpt>
      <trkpt lat="36.419800" lon="-117.267280">
        <ele>1376.411</ele>
        <time>2018-12-28T21:11:19Z</time>
      </trkpt>
      <trkpt lat="36.419820" lon="-117.267230">
        <ele>1376.208</ele>
        <time>2018-12-28T21:11:39Z</time>
      </trkpt>
      <trkpt lat="36.419850" lon="-117.267180">
        <ele>1375.968</ele>
        <time>2018-12-28T21:11:59Z</time>
      </trkpt>
      <trkpt lat="36.419880" lon="-117.267130">
        <ele>1375.516</ele>
        <time>2018-12-28T21:12:19Z</time>
      </trkpt>
      <trkpt lat="36.419910" lon="-117.267080">
        <ele>1375.351</ele>
        <time>2018-12-28T21:12:39Z</time>
      </trkpt>
      <trkpt lat="36.419940" lon="-117.267030">
        <ele>1375.591</ele>
        <time>2018-12-28T21:12:59Z</time>
      </trkpt>
      <trkpt lat="36.419970" lon="-117.266980">
        <ele>1375.885</ele>
        <time>2018-12-28T21:13:19Z</time>
      </trkpt>
      <trkpt lat="36.420000" lon="-117.266930">
        <ele>1376.069</ele>
        <time>2018-12-28T21:13:39Z</time>
      </trkpt>
      <trkpt lat="36.420030" lon="-117.266880">
        <ele>1376.168</ele>
        <time>2018-12-28T21:13:59Z</time>
      </trkpt>
      <trkpt lat="36.420080" lon="-117.266820">
        <ele>1376.173</ele>
        <time>2018-12-28T21:14:19Z</time>
      </trkpt>
      <trkpt lat="36.420120" lon="-117.266760">
        <ele>1376.637</ele>
        <time>2018-12-28T21:14:39Z</time>
      </trkpt>
      <trkpt lat="36.420170" lon="-117.266700">
        <ele>1376.949</ele>
        <time>2018-12-28T21:14:59Z</time>
      </trkpt>
      <trkpt lat="36.420220" lon="-117.266650">
        <ele>1377.013</ele>
        <time>2018-12-28T21:15:19Z</time>
      </trkpt>
      <trkpt lat="36.420270" lon="-117.266590">
        <ele>1377.108</ele>
        <time>2018-12-28T21:15:39Z</time>
      </trkpt>
      <trkpt lat="36.420320" lon="-117.266540">
        <ele>1376.816</ele>
        <time>2018-12-28T21:15:59Z</time>
      </trkpt>
      <trkpt lat="36.420380" lon="-117.266490">
        <ele>1376.754</ele>
        <time>2018-12-28T21:16:19Z</time>
      </trkpt>
      <trkpt lat="36.420430" lon="-117.266450">
        <ele>1376.399</ele>
        <time>2018-12-28T21:16:39Z</time>
      </trkpt>
      <trkpt lat="36.420480" lon="-117.266410">
        <ele>1376.229</ele>
        <time>2018-12-28T21:16:59Z</time>
      </trkpt>
      <trkpt lat="36.420530" lon="-117.266380">
        <ele>1375.933</ele>
        <time>2018-12-28T21:17:19Z</time>
      </trkpt>
      <trkpt lat="36.420570" lon="-117.266350">
        <ele>1375.877</ele>
        <time>2018-12-28T21:17:39Z</time>
      </trkpt>
      <trkpt lat="36.420620" lon="-117.266320">
        <ele>1375.446</ele>
        <time>2018-12-28T21:17:59Z</time>
      </trkpt>
      <trkpt lat="36.420670" lon="-117.266290">
        <ele>1375.061</ele>
        <time>2018-12-28T21:18:19Z</time>
      </trkpt>
      <trkpt lat="36.420720" lon="-117.266260">
        <ele>1374.696</ele>
        <time>2018-12-28T21:18:39Z</time>
      </trkpt>
      <trkpt lat="36.420770" lon="-117.266240">
        <ele>1374.231</ele>
        <time>2018-12-28T21:18:59Z</time>
      </trkpt>
      <trkpt lat="36.420820" lon="-117.266210">
        <ele>1374.024</ele>
        <time>2018-12-28T21:19:19Z</time>
      </trkpt>
      <trkpt lat="36.421000" lon="-117.266140">
        <ele>1371.908</ele>
        <time>2018-12-28T21:19:39Z</time>
      </trkpt>
      <trkpt lat="36.421230" lon="-117.266050">
        <ele>1366.532</ele>
        <time>2018-12-28T21:19:59Z</time>
      </trkpt>
      <trkpt lat="36.421400" lon="-117.265990">
        <ele>1365.310</ele>
        <time>2018-12-28T21:20:19Z</time>
      </trkpt>
      <trkpt lat="36.421620" lon="-117.265920">
        <ele>1365.395</ele>
        <time>2018-12-28T21:20:39Z</time>
      </trkpt>
      <trkpt lat="36.421690" lon="-117.265910">
        <ele>1365.255</ele>
        <time>2018-12-28T21:20:59Z</time>
      </trkpt>
      <trkpt lat="36.421730" lon="-117.265900">
        <ele>1365.249</ele>
        <time>2018-12-28T21:21:19Z</time>
      </trkpt>
      <trkpt lat="36.421790" lon="-117.265890">
        <ele>1365.123</ele>
        <time>2018-12-28T21:21:39Z</time>
      </trkpt>
      <trkpt lat="36.421870" lon="-117.265880">
        <ele>1365.092</ele>
        <time>2018-12-28T21:21:59Z</time>
      </trkpt>
      <trkpt lat="36.421940" lon="-117.265890">
        <ele>1364.757</ele>
        <time>2018-12-28T21:22:19Z</time>
      </trkpt>
      <trkpt lat="36.422010" lon="-117.265890">
        <ele>1364.696</ele>
        <time>2018-12-28T21:22:39Z</time>
      </trkpt>
      <trkpt lat="36.422280" lon="-117.265930">
        <ele>1363.031</ele>
        <time>2018-12-28T21:22:59Z</time>
      </trkpt>
      <trkpt lat="36.422360" lon="-117.265940">
        <ele>1362.424</ele>
        <time>2018-12-28T21:23:19Z</time>
      </trkpt>
      <trkpt lat="36.422420" lon="-117.265940">
        <ele>1361.908</ele>
        <time>2018-12-28T21:23:39Z</time>
      </trkpt>
      <trkpt lat="36.422490" lon="-117.265940">
        <ele>1361.332</ele>
        <time>2018-12-28T21:23:59Z</time>
      </trkpt>
      <trkpt lat="36.422580" lon="-117.265930">
        <ele>1360.770</ele>
        <time>2018-12-28T21:24:19Z</time>
      </trkpt>
      <trkpt lat="36.422620" lon="-117.265920">
        <ele>1360.525</ele>
        <time>2018-12-28T21:24:39Z</time>
      </trkpt>
      <trkpt lat="36.422700" lon="-117.265890">
        <ele>1360.075</ele>
        <time>2018-12-28T21:24:59Z</time>
      </trkpt>
      <trkpt lat="36.422810" lon="-117.265860">
        <ele>1358.959</ele>
        <time>2018-12-28T21:25:19Z</time>
      </trkpt>
      <trkpt lat="36.422880" lon="-117.265820">
        <ele>1358.133</ele>
        <time>2018-12-28T21:25:39Z</time>
      </trkpt>
      <trkpt lat="36.422970" lon="-117.265770">
        <ele>1357.412</ele>
        <time>2018-12-28T21:25:59Z</time>
      </trkpt>
      <trkpt lat="36.423070" lon="-117.265710">
        <ele>1356.747</ele>
        <time>2018-12-28T21:26:19Z</time>
      </trkpt>
      <trkpt lat="36.423150" lon="-117.265650">
        <ele>1356.258</ele>
        <time>2018-12-28T21:26:39Z</time>
      </trkpt>
      <trkpt lat="36.423230" lon="-117.265590">
        <ele>1355.752</ele>
        <time>2018-12-28T21:26:59Z</time>
      </trkpt>
      <trkpt lat="36.423530" lon="-117.265290">
        <ele>1353.717</ele>
        <time>2018-12-28T21:27:19Z</time>
      </trkpt>
      <trkpt lat="36.423630" lon="-117.265190">
        <ele>1351.808</ele>
        <time>2018-12-28T21:27:39Z</time>
      </trkpt>
      <trkpt lat="36.423820" lon="-117.264990">
        <ele>1348.838</ele>
        <time>2018-12-28T21:27:59Z</time>
      </trkpt>
      <trkpt lat="36.424040" lon="-117.264780">
        <ele>1346.356</ele>
        <time>2018-12-28T21:28:19Z</time>
      </trkpt>
      <trkpt lat="36.424810" lon="-117.264000">
        <ele>1337.791</ele>
        <time>2018-12-28T21:28:39Z</time>
      </trkpt>
      <trkpt lat="36.424960" lon="-117.263870">
        <ele>1336.021</ele>
        <time>2018-12-28T21:28:59Z</time>
      </trkpt>
      <trkpt lat="36.425060" lon="-117.263770">
        <ele>1335.045</ele>
        <time>2018-12-28T21:29:19Z</time>
      </trkpt>
      <trkpt lat="36.425190" lon="-117.263660">
        <ele>1333.869</ele>
        <time>2018-12-28T21:29:39Z</time>
      </trkpt>
      <trkpt lat="36.425350" lon="-117.263560">
        <ele>1333.388</ele>
        <time>2018-12-28T21:29:59Z</time>
      </trkpt>
      <trkpt lat="36.425580" lon="-117.263410">
        <ele>1331.963</ele>
        <time>2018-12-28T21:30:19Z</time>
      </trkpt>
      <trkpt lat="36.425850" lon="-117.263230">
        <ele>1327.783</ele>
        <time>2018-12-28T21:30:39Z</time>
      </trkpt>
      <trkpt lat="36.426060" lon="-117.263100">
        <ele>1324.525</ele>
        <time>2018-12-28T21:30:59Z</time>
      </trkpt>
      <trkpt lat="36.426330" lon="-117.262920">
        <ele>1320.917</ele>
        <time>2018-12-28T21:31:19Z</time>
      </trkpt>
      <trkpt lat="36.426590" lon="-117.262750">
        <ele>1317.408</ele>
        <time>2018-12-28T21:31:39Z</time>
      </trkpt>
      <trkpt lat="36.426950" lon="-117.262520">
        <ele>1311.011</ele>
        <time>2018-12-28T21:31:59Z</time>
      </trkpt>
      <trkpt lat="36.427120" lon="-117.262410">
        <ele>1308.769</ele>
        <time>2018-12-28T21:32:19Z</time>
      </trkpt>
      <trkpt lat="36.427320" lon="-117.262280">
        <ele>1307.274</ele>
        <time>2018-12-28T21:32:39Z</time>
      </trkpt>
      <trkpt lat="36.427420" lon="-117.262200">
        <ele>1306.914</ele>
        <time>2018-12-28T21:32:59Z</time>
      </trkpt>
      <trkpt lat="36.427500" lon="-117.262130">
        <ele>1306.938</ele>
        <time>2018-12-28T21:33:19Z</time>
      </trkpt>
      <trkpt lat="36.427700" lon="-117.261930">
        <ele>1305.772</ele>
        <time>2018-12-28T21:33:39Z</time>
      </trkpt>
      <trkpt lat="36.427790" lon="-117.261840">
        <ele>1305.011</ele>
        <time>2018-12-28T21:33:59Z</time>
      </trkpt>
      <trkpt lat="36.427900" lon="-117.261710">
        <ele>1303.996</ele>
        <time>2018-12-28T21:34:19Z</time>
      </trkpt>
      <trkpt lat="36.428180" lon="-117.261380">
        <ele>1298.189</ele>
        <time>2018-12-28T21:34:39Z</time>
      </trkpt>
      <trkpt lat="36.428390" lon="-117.261140">
        <ele>1295.506</ele>
        <time>2018-12-28T21:34:59Z</time>
      </trkpt>
      <trkpt lat="36.428530" lon="-117.260950">
        <ele>1294.226</ele>
        <time>2018-12-28T21:35:19Z</time>
      </trkpt>
      <trkpt lat="36.428610" lon="-117.260840">
        <ele>1293.408</ele>
        <time>2018-12-28T21:35:39Z</time>
      </trkpt>
      <trkpt lat="36.428700" lon="-117.260690">
        <ele>1293.581</ele>
        <time>2018-12-28T21:35:59Z</time>
      </trkpt>
      <trkpt lat="36.428750" lon="-117.260610">
        <ele>1292.249</ele>
        <time>2018-12-28T21:36:19Z</time>
      </trkpt>
      <trkpt lat="36.428790" lon="-117.260520">
        <ele>1290.694</ele>
        <time>2018-12-28T21:36:39Z</time>
      </trkpt>
      <trkpt lat="36.428850" lon="-117.260390">
        <ele>1288.414</ele>
        <time>2018-12-28T21:36:59Z</time>
      </trkpt>
      <trkpt lat="36.428910" lon="-117.260240">
        <ele>1287.458</ele>
        <time>2018-12-28T21:37:19Z</time>
      </trkpt>
      <trkpt lat="36.428970" lon="-117.260050">
        <ele>1286.382</ele>
        <time>2018-12-28T21:37:39Z</time>
      </trkpt>
      <trkpt lat="36.429100" lon="-117.259660">
        <ele>1285.231</ele>
        <time>2018-12-28T21:37:59Z</time>
      </trkpt>
      <trkpt lat="36.429390" lon="-117.258930">
        <ele>1284.496</ele>
        <time>2018-12-28T21:38:19Z</time>
      </trkpt>
      <trkpt lat="36.429530" lon="-117.258600">
        <ele>1282.593</ele>
        <time>2018-12-28T21:38:39Z</time>
      </trkpt>
      <trkpt lat="36.429630" lon="-117.258410">
        <ele>1280.365</ele>
        <time>2018-12-28T21:38:59Z</time>
      </trkpt>
      <trkpt lat="36.429750" lon="-117.258190">
        <ele>1278.321</ele>
        <time>2018-12-28T21:39:19Z</time>
      </trkpt>
      <trkpt lat="36.430070" lon="-117.257620">
        <ele>1272.408</ele>
        <time>2018-12-28T21:39:39Z</time>
      </trkpt>
      <trkpt lat="36.430960" lon="-117.256000">
        <ele>1260.772</ele>
        <time>2018-12-28T21:39:59Z</time>
      </trkpt>
      <trkpt lat="36.431360" lon="-117.255240">
        <ele>1253.010</ele>
        <time>2018-12-28T21:40:19Z</time>
      </trkpt>
      <trkpt lat="36.431790" lon="-117.254440">
        <ele>1242.975</ele>
        <time>2018-12-28T21:40:39Z</time>
      </trkpt>
      <trkpt lat="36.432130" lon="-117.253810">
        <ele>1241.365</ele>
        <time>2018-12-28T21:40:59Z</time>
      </trkpt>
      <trkpt lat="36.432180" lon="-117.253720">
        <ele>1241.169</ele>
        <time>2018-12-28T21:41:19Z</time>
      </trkpt>
      <trkpt lat="36.432380" lon="-117.253390">
        <ele>1239.953</ele>
        <time>2018-12-28T21:41:39Z</time>
      </trkpt>
      <trkpt lat="36.432530" lon="-117.253130">
        <ele>1238.622</ele>
        <time>2018-12-28T21:41:59Z</time>
      </trkpt>
      <trkpt lat="36.432650" lon="-117.252950">
        <ele>1238.337</ele>
        <time>2018-12-28T21:42:19Z</time>
      </trkpt>
      <trkpt lat="36.432760" lon="-117.252770">
        <ele>1238.573</ele>
        <time>2018-12-28T21:42:39Z</time>
      </trkpt>
      <trkpt lat="36.432870" lon="-117.252610">
        <ele>1238.385</ele>
        <time>2018-12-28T21:42:59Z</time>
      </trkpt>
      <trkpt lat="36.432960" lon="-117.252490">
        <ele>1238.313</ele>
        <time>2018-12-28T21:43:19Z</time>
      </trkpt>
      <trkpt lat="36.433050" lon="-117.252380">
        <ele>1238.008</ele>
        <time>2018-12-28T21:43:39Z</time>
      </trkpt>
      <trkpt lat="36.433150" lon="-117.252260">
        <ele>1237.590</ele>
        <time>2018-12-28T21:43:59Z</time>
      </trkpt>
      <trkpt lat="36.433370" lon="-117.252020">
        <ele>1236.328</ele>
        <time>2018-12-28T21:44:19Z</time>
      </trkpt>
      <trkpt lat="36.433470" lon="-117.251900">
        <ele>1235.853</ele>
        <time>2018-12-28T21:44:39Z</time>
      </trkpt>
      <trkpt lat="36.433930" lon="-117.251380">
        <ele>1230.913</ele>
        <time>2018-12-28T21:44:59Z</time>
      </trkpt>
      <trkpt lat="36.434050" lon="-117.251260">
        <ele>1229.417</ele>
        <time>2018-12-28T21:45:19Z</time>
      </trkpt>
      <trkpt lat="36.434170" lon="-117.251130">
        <ele>1227.981</ele>
        <time>2018-12-28T21:45:39Z</time>
      </trkpt>
      <trkpt lat="36.434300" lon="-117.251020">
        <ele>1226.490</ele>
        <time>2018-12-28T21:45:59Z</time>
      </trkpt>
      <trkpt lat="36.434460" lon="-117.250890">
        <ele>1224.615</ele>
        <time>2018-12-28T21:46:19Z</time>
      </trkpt>
      <trkpt lat="36.434890" lon="-117.250580">
        <ele>1219.618</ele>
        <time>2018-12-28T21:46:39Z</time>
      </trkpt>
      <trkpt lat="36.434920" lon="-117.250560">
        <ele>1219.198</ele>
        <time>2018-12-28T21:46:59Z</time>
      </trkpt>
      <trkpt lat="36.435470" lon="-117.250200">
        <ele>1210.517</ele>
        <time>2018-12-28T21:47:19Z</time>
      </trkpt>
      <trkpt lat="36.435890" lon="-117.249950">
        <ele>1204.608</ele>
        <time>2018-12-28T21:47:39Z</time>
      </trkpt>
      <trkpt lat="36.435990" lon="-117.249890">
        <ele>1203.164</ele>
        <time>2018-12-28T21:47:59Z</time>
      </trkpt>
      <trkpt lat="36.436130" lon="-117.249820">
        <ele>1201.242</ele>
        <time>2018-12-28T21:48:19Z</time>
      </trkpt>
      <trkpt lat="36.436220" lon="-117.249780">
        <ele>1200.177</ele>
        <time>2018-12-28T21:48:39Z</time>
      </trkpt>
      <trkpt lat="36.436330" lon="-117.249740">
        <ele>1198.997</ele>
        <time>2018-12-28T21:48:59Z</time>
      </trkpt>
      <trkpt lat="36.436540" lon="-117.249670">
        <ele>1196.851</ele>
        <time>2018-12-28T21:49:19Z</time>
      </trkpt>
      <trkpt lat="36.436660" lon="-117.249630">
        <ele>1195.615</ele>
        <time>2018-12-28T21:49:39Z</time>
      </trkpt>
      <trkpt lat="36.437100" lon="-117.249490">
        <ele>1191.154</ele>
        <time>2018-12-28T21:49:59Z</time>
      </trkpt>
      <trkpt lat="36.437170" lon="-117.249470">
        <ele>1190.689</ele>
        <time>2018-12-28T21:50:19Z</time>
      </trkpt>
      <trkpt lat="36.437230" lon="-117.249440">
        <ele>1190.195</ele>
        <time>2018-12-28T21:50:39Z</time>
      </trkpt>
      <trkpt lat="36.437300" lon="-117.249410">
        <ele>1189.549</ele>
        <time>2018-12-28T21:50:59Z</time>
      </trkpt>
      <trkpt lat="36.437360" lon="-117.249390">
        <ele>1188.923</ele>
        <time>2018-12-28T21:51:19Z</time>
      </trkpt>
      <trkpt lat="36.437410" lon="-117.249360">
        <ele>1188.508</ele>
        <time>2018-12-28T21:51:39Z</time>
      </trkpt>
      <trkpt lat="36.437460" lon="-117.249330">
        <ele>1188.032</ele>
        <time>2018-12-28T21:51:59Z</time>
      </trkpt>
      <trkpt lat="36.437510" lon="-117.249310">
        <ele>1187.560</ele>
        <time>2018-12-28T21:52:19Z</time>
      </trkpt>
      <trkpt lat="36.437560" lon="-117.249280">
        <ele>1186.995</ele>
        <time>2018-12-28T21:52:39Z</time>
      </trkpt>
      <trkpt lat="36.437610" lon="-117.249250">
        <ele>1186.345</ele>
        <time>2018-12-28T21:52:59Z</time>
      </trkpt>
      <trkpt lat="36.437660" lon="-117.249220">
        <ele>1185.739</ele>
        <time>2018-12-28T21:53:19Z</time>
      </trkpt>
      <trkpt lat="36.437710" lon="-117.249190">
        <ele>1185.163</ele>
        <time>2018-12-28T21:53:39Z</time>
      </trkpt>
      <trkpt lat="36.437770" lon="-117.249160">
        <ele>1184.442</ele>
        <time>2018-12-28T21:53:59Z</time>
      </trkpt>
      <trkpt lat="36.437820" lon="-117.249130">
        <ele>1183.837</ele>
        <time>2018-12-28T21:54:19Z</time>
      </trkpt>
      <trkpt lat="36.437870" lon="-117.249090">
        <ele>1183.315</ele>
        <time>2018-12-28T21:54:39Z</time>
      </trkpt>
      <trkpt lat="36.437920" lon="-117.249060">
        <ele>1182.865</ele>
        <time>2018-12-28T21:54:59Z</time>
      </trkpt>
      <trkpt lat="36.437980" lon="-117.249020">
        <ele>1182.211</ele>
        <time>2018-12-28T21:55:19Z</time>
      </trkpt>
      <trkpt lat="36.438030" lon="-117.248990">
        <ele>1181.708</ele>
        <time>2018-12-28T21:55:39Z</time>
      </trkpt>
      <trkpt lat="36.438080" lon="-117.248950">
        <ele>1181.194</ele>
        <time>2018-12-28T21:55:59Z</time>
      </trkpt>
      <trkpt lat="36.438130" lon="-117.248920">
        <ele>1180.612</ele>
        <time>2018-12-28T21:56:19Z</time>
      </trkpt>
      <trkpt lat="36.438230" lon="-117.248840">
        <ele>1179.327</ele>
        <time>2018-12-28T21:56:39Z</time>
      </trkpt>
      <trkpt lat="36.438290" lon="-117.248800">
        <ele>1178.697</ele>
        <time>2018-12-28T21:56:59Z</time>
      </trkpt>
      <trkpt lat="36.438670" lon="-117.248530">
        <ele>1174.821</ele>
        <time>2018-12-28T21:57:19Z</time>
      </trkpt>
      <trkpt lat="36.439050" lon="-117.248250">
        <ele>1170.355</ele>
        <time>2018-12-28T21:57:39Z</time>
      </trkpt>
      <trkpt lat="36.439280" lon="-117.248090">
        <ele>1167.454</ele>
        <time>2018-12-28T21:57:59Z</time>
      </trkpt>
      <trkpt lat="36.439780" lon="-117.247760">
        <ele>1159.199</ele>
        <time>2018-12-28T21:58:19Z</time>
      </trkpt>
      <trkpt lat="36.440640" lon="-117.247210">
        <ele>1150.958</ele>
        <time>2018-12-28T21:58:39Z</time>
      </trkpt>
      <trkpt lat="36.441670" lon="-117.246590">
        <ele>1138.152</ele>
        <time>2018-12-28T21:58:59Z</time>
      </trkpt>
      <trkpt lat="36.442510" lon="-117.246070">
        <ele>1128.517</ele>
        <time>2018-12-28T21:59:19Z</time>
      </trkpt>
      <trkpt lat="36.443500" lon="-117.245470">
        <ele>1118.108</ele>
        <time>2018-12-28T21:59:39Z</time>
      </trkpt>
      <trkpt lat="36.443810" lon="-117.245290">
        <ele>1114.538</ele>
        <time>2018-12-28T21:59:59Z</time>
      </trkpt>
      <trkpt lat="36.444310" lon="-117.244980">
        <ele>1110.356</ele>
        <time>2018-12-28T22:00:19Z</time>
      </trkpt>
      <trkpt lat="36.444750" lon="-117.244730">
        <ele>1103.341</ele>
        <time>2018-12-28T22:00:39Z</time>
      </trkpt>
      <trkpt lat="36.445000" lon="-117.244580">
        <ele>1100.551</ele>
        <time>2018-12-28T22:00:59Z</time>
      </trkpt>
      <trkpt lat="36.445690" lon="-117.244200">
        <ele>1093.985</ele>
        <time>2018-12-28T22:01:19Z</time>
      </trkpt>
      <trkpt lat="36.446050" lon="-117.244010">
        <ele>1090.659</ele>
        <time>2018-12-28T22:01:39Z</time>
      </trkpt>
      <trkpt lat="36.446420" lon="-117.243840">
        <ele>1087.628</ele>
        <time>2018-12-28T22:01:59Z</time>
      </trkpt>
      <trkpt lat="36.446560" lon="-117.243770">
        <ele>1086.563</ele>
        <time>2018-12-28T22:02:19Z</time>
      </trkpt>
      <trkpt lat="36.446810" lon="-117.243670">
        <ele>1084.265</ele>
        <time>2018-12-28T22:02:39Z</time>
      </trkpt>
      <trkpt lat="36.447040" lon="-117.243570">
        <ele>1082.068</ele>
        <time>2018-12-28T22:02:59Z</time>
      </trkpt>
      <trkpt lat="36.447460" lon="-117.243410">
        <ele>1077.914</ele>
        <time>2018-12-28T22:03:19Z</time>
      </trkpt>
      <trkpt lat="36.447890" lon="-117.243240">
        <ele>1075.308</ele>
        <time>2018-12-28T22:03:39Z</time>
      </trkpt>
      <trkpt lat="36.448370" lon="-117.243050">
        <ele>1069.659</ele>
        <time>2018-12-28T22:03:59Z</time>
      </trkpt>
      <trkpt lat="36.448540" lon="-117.242980">
        <ele>1067.237</ele>
        <time>2018-12-28T22:04:19Z</time>
      </trkpt>
      <trkpt lat="36.448890" lon="-117.242830">
        <ele>1063.672</ele>
        <time>2018-12-28T22:04:39Z</time>
      </trkpt>
      <trkpt lat="36.449120" lon="-117.242740">
        <ele>1061.592</ele>
        <time>2018-12-28T22:04:59Z</time>
      </trkpt>
      <trkpt lat="36.449400" lon="-117.242650">
        <ele>1058.626</ele>
        <time>2018-12-28T22:05:19Z</time>
      </trkpt>
      <trkpt lat="36.450080" lon="-117.242450">
        <ele>1052.610</ele>
        <time>2018-12-28T22:05:39Z</time>
      </trkpt>
      <trkpt lat="36.450610" lon="-117.242290">
        <ele>1048.399</ele>
        <time>2018-12-28T22:05:59Z</time>
      </trkpt>
      <trkpt lat="36.450950" lon="-117.242190">
        <ele>1044.334</ele>
        <time>2018-12-28T22:06:19Z</time>
      </trkpt>
      <trkpt lat="36.451390" lon="-117.242010">
        <ele>1039.989</ele>
        <time>2018-12-28T22:06:39Z</time>
      </trkpt>
      <trkpt lat="36.451800" lon="-117.241800">
        <ele>1036.006</ele>
        <time>2018-12-28T22:06:59Z</time>
      </trkpt>
      <trkpt lat="36.452020" lon="-117.241690">
        <ele>1033.526</ele>
        <time>2018-12-28T22:07:19Z</time>
      </trkpt>
      <trkpt lat="36.452250" lon="-117.241570">
        <ele>1030.808</ele>
        <time>2018-12-28T22:07:39Z</time>
      </trkpt>
      <trkpt lat="36.452680" lon="-117.241360">
        <ele>1026.141</ele>
        <time>2018-12-28T22:07:59Z</time>
      </trkpt>
      <trkpt lat="36.453200" lon="-117.241140">
        <ele>1021.619</ele>
        <time>2018-12-28T22:08:19Z</time>
      </trkpt>
      <trkpt lat="36.453680" lon="-117.240940">
        <ele>1017.634</ele>
        <time>2018-12-28T22:08:39Z</time>
      </trkpt>
      <trkpt lat="36.454490" lon="-117.240570">
        <ele>1009.964</ele>
        <time>2018-12-28T22:08:59Z</time>
      </trkpt>
      <trkpt lat="36.455040" lon="-117.240300">
        <ele>1003.718</ele>
        <time>2018-12-28T22:09:19Z</time>
      </trkpt>
      <trkpt lat="36.455210" lon="-117.240230">
        <ele>1002.322</ele>
        <time>2018-12-28T22:09:39Z</time>
      </trkpt>
      <trkpt lat="36.455360" lon="-117.240170">
        <ele>1001.121</ele>
        <time>2018-12-28T22:09:59Z</time>
      </trkpt>
      <trkpt lat="36.455810" lon="-117.240010">
        <ele>996.816</ele>
        <time>2018-12-28T22:10:19Z</time>
      </trkpt>
      <trkpt lat="36.456060" lon="-117.239920">
        <ele>994.237</ele>
        <time>2018-12-28T22:10:39Z</time>
      </trkpt>
      <trkpt lat="36.456210" lon="-117.239840">
        <ele>992.749</ele>
        <time>2018-12-28T22:10:59Z</time>
      </trkpt>
      <trkpt lat="36.456330" lon="-117.239780">
        <ele>991.513</ele>
        <time>2018-12-28T22:11:19Z</time>
      </trkpt>
      <trkpt lat="36.456480" lon="-117.239680">
        <ele>990.208</ele>
        <time>2018-12-28T22:11:39Z</time>
      </trkpt>
      <trkpt lat="36.456870" lon="-117.239500">
        <ele>987.246</ele>
        <time>2018-12-28T22:11:59Z</time>
      </trkpt>
      <trkpt lat="36.458000" lon="-117.238880">
        <ele>979.874</ele>
        <time>2018-12-28T22:12:19Z</time>
      </trkpt>
      <trkpt lat="36.458710" lon="-117.238510">
        <ele>973.969</ele>
        <time>2018-12-28T22:12:39Z</time>
      </trkpt>
      <trkpt lat="36.459500" lon="-117.238130">
        <ele>966.399</ele>
        <time>2018-12-28T22:12:59Z</time>
      </trkpt>
      <trkpt lat="36.461100" lon="-117.237370">
        <ele>949.053</ele>
        <time>2018-12-28T22:13:19Z</time>
      </trkpt>
      <trkpt lat="36.462670" lon="-117.236620">
        <ele>936.637</ele>
        <time>2018-12-28T22:13:39Z</time>
      </trkpt>
      <trkpt lat="36.463240" lon="-117.236350">
        <ele>933.016</ele>
        <time>2018-12-28T22:13:59Z</time>
      </trkpt>
      <trkpt lat="36.463490" lon="-117.236250">
        <ele>929.861</ele>
        <time>2018-12-28T22:14:19Z</time>
      </trkpt>
      <trkpt lat="36.463660" lon="-117.236190">
        <ele>928.092</ele>
        <time>2018-12-28T22:14:39Z</time>
      </trkpt>
      <trkpt lat="36.463770" lon="-117.236160">
        <ele>926.973</ele>
        <time>2018-12-28T22:14:59Z</time>
      </trkpt>
      <trkpt lat="36.463850" lon="-117.236130">
        <ele>926.120</ele>
        <time>2018-12-28T22:15:19Z</time>
      </trkpt>
      <trkpt lat="36.463960" lon="-117.236110">
        <ele>925.108</ele>
        <time>2018-12-28T22:15:39Z</time>
      </trkpt>
      <trkpt lat="36.464120" lon="-117.236070">
        <ele>923.722</ele>
        <time>2018-12-28T22:15:59Z</time>
      </trkpt>
      <trkpt lat="36.464250" lon="-117.236050">
        <ele>922.660</ele>
        <time>2018-12-28T22:16:19Z</time>
      </trkpt>
      <trkpt lat="36.464360" lon="-117.236030">
        <ele>921.445</ele>
        <time>2018-12-28T22:16:39Z</time>
      </trkpt>
      <trkpt lat="36.464530" lon="-117.236000">
        <ele>919.285</ele>
        <time>2018-12-28T22:16:59Z</time>
      </trkpt>
      <trkpt lat="36.465340" lon="-117.235890">
        <ele>911.779</ele>
        <time>2018-12-28T22:17:19Z</time>
      </trkpt>
      <trkpt lat="36.465520" lon="-117.235860">
        <ele>910.393</ele>
        <time>2018-12-28T22:17:39Z</time>
      </trkpt>
      <trkpt lat="36.465670" lon="-117.235840">
        <ele>909.052</ele>
        <time>2018-12-28T22:17:59Z</time>
      </trkpt>
      <trkpt lat="36.465810" lon="-117.235820">
        <ele>907.237</ele>
        <time>2018-12-28T22:18:19Z</time>
      </trkpt>
      <trkpt lat="36.466000" lon="-117.235780">
        <ele>904.743</ele>
        <time>2018-12-28T22:18:39Z</time>
      </trkpt>
      <trkpt lat="36.466240" lon="-117.235740">
        <ele>902.464</ele>
        <time>2018-12-28T22:18:59Z</time>
      </trkpt>
      <trkpt lat="36.466840" lon="-117.235620">
        <ele>899.010</ele>
        <time>2018-12-28T22:19:19Z</time>
      </trkpt>
      <trkpt lat="36.467140" lon="-117.235560">
        <ele>895.708</ele>
        <time>2018-12-28T22:19:39Z</time>
      </trkpt>
      <trkpt lat="36.467370" lon="-117.235510">
        <ele>892.467</ele>
        <time>2018-12-28T22:19:59Z</time>
      </trkpt>
      <trkpt lat="36.467650" lon="-117.235460">
        <ele>889.935</ele>
        <time>2018-12-28T22:20:19Z</time>
      </trkpt>
      <trkpt lat="36.467810" lon="-117.235430">
        <ele>889.080</ele>
        <time>2018-12-28T22:20:39Z</time>
      </trkpt>
      <trkpt lat="36.468050" lon="-117.235390">
        <ele>887.680</ele>
        <time>2018-12-28T22:20:59Z</time>
      </trkpt>
      <trkpt lat="36.468330" lon="-117.235340">
        <ele>885.414</ele>
        <time>2018-12-28T22:21:19Z</time>
      </trkpt>
      <trkpt lat="36.468760" lon="-117.235270">
        <ele>880.458</ele>
        <time>2018-12-28T22:21:39Z</time>
      </trkpt>
      <trkpt lat="36.469040" lon="-117.235220">
        <ele>877.937</ele>
        <time>2018-12-28T22:21:59Z</time>
      </trkpt>
      <trkpt lat="36.469380" lon="-117.235150">
        <ele>875.912</ele>
        <time>2018-12-28T22:22:19Z</time>
      </trkpt>
      <trkpt lat="36.469540" lon="-117.235110">
        <ele>875.025</ele>
        <time>2018-12-28T22:22:39Z</time>
      </trkpt>
      <trkpt lat="36.470120" lon="-117.234980">
        <ele>871.126</ele>
        <time>2018-12-28T22:22:59Z</time>
      </trkpt>
      <trkpt lat="36.471370" lon="-117.234660">
        <ele>860.108</ele>
        <time>2018-12-28T22:23:19Z</time>
      </trkpt>
      <trkpt lat="36.471630" lon="-117.234590">
        <ele>857.408</ele>
        <time>2018-12-28T22:23:39Z</time>
      </trkpt>
      <trkpt lat="36.471780" lon="-117.234550">
        <ele>855.925</ele>
        <time>2018-12-28T22:23:59Z</time>
      </trkpt>
      <trkpt lat="36.471880" lon="-117.234520">
        <ele>855.113</ele>
        <time>2018-12-28T22:24:19Z</time>
      </trkpt>
      <trkpt lat="36.471990" lon="-117.234480">
        <ele>854.288</ele>
        <time>2018-12-28T22:24:39Z</time>
      </trkpt>
      <trkpt lat="36.472160" lon="-117.234420">
        <ele>852.958</ele>
        <time>2018-12-28T22:24:59Z</time>
      </trkpt>
      <trkpt lat="36.473120" lon="-117.234110">
        <ele>845.792</ele>
        <time>2018-12-28T22:25:19Z</time>
      </trkpt>
      <trkpt lat="36.473370" lon="-117.234030">
        <ele>843.896</ele>
        <time>2018-12-28T22:25:39Z</time>
      </trkpt>
      <trkpt lat="36.473550" lon="-117.233970">
        <ele>842.455</ele>
        <time>2018-12-28T22:25:59Z</time>
      </trkpt>
      <trkpt lat="36.473980" lon="-117.233820">
        <ele>838.640</ele>
        <time>2018-12-28T22:26:19Z</time>
      </trkpt>
      <trkpt lat="36.474480" lon="-117.233650">
        <ele>834.158</ele>
        <time>2018-12-28T22:26:39Z</time>
      </trkpt>
      <trkpt lat="36.476020" lon="-117.233160">
        <ele>820.352</ele>
        <time>2018-12-28T22:26:59Z</time>
      </trkpt>
      <trkpt lat="36.477370" lon="-117.232730">
        <ele>811.717</ele>
        <time>2018-12-28T22:27:19Z</time>
      </trkpt>
      <trkpt lat="36.477540" lon="-117.232680">
        <ele>810.808</ele>
        <time>2018-12-28T22:27:39Z</time>
      </trkpt>
      <trkpt lat="36.478920" lon="-117.232240">
        <ele>801.928</ele>
        <time>2018-12-28T22:27:59Z</time>
      </trkpt>
      <trkpt lat="36.480030" lon="-117.231870">
        <ele>792.576</ele>
        <time>2018-12-28T22:28:19Z</time>
      </trkpt>
      <trkpt lat="36.480270" lon="-117.231780">
        <ele>789.311</ele>
        <time>2018-12-28T22:28:39Z</time>
      </trkpt>
      <trkpt lat="36.481470" lon="-117.231380">
        <ele>777.051</ele>
        <time>2018-12-28T22:28:59Z</time>
      </trkpt>
      <trkpt lat="36.482150" lon="-117.231160">
        <ele>771.925</ele>
        <time>2018-12-28T22:29:19Z</time>
      </trkpt>
      <trkpt lat="36.483160" lon="-117.230810">
        <ele>763.219</ele>
        <time>2018-12-28T22:29:39Z</time>
      </trkpt>
      <trkpt lat="36.484100" lon="-117.230470">
        <ele>754.778</ele>
        <time>2018-12-28T22:29:59Z</time>
      </trkpt>
      <trkpt lat="36.485340" lon="-117.230040">
        <ele>744.853</ele>
        <time>2018-12-28T22:30:19Z</time>
      </trkpt>
      <trkpt lat="36.485780" lon="-117.229890">
        <ele>740.985</ele>
        <time>2018-12-28T22:30:39Z</time>
      </trkpt>
      <trkpt lat="36.486380" lon="-117.229680">
        <ele>736.189</ele>
        <time>2018-12-28T22:30:59Z</time>
      </trkpt>
      <trkpt lat="36.487500" lon="-117.229310">
        <ele>727.917</ele>
        <time>2018-12-28T22:31:19Z</time>
      </trkpt>
      <trkpt lat="36.488850" lon="-117.228890">
        <ele>718.108</ele>
        <time>2018-12-28T22:31:39Z</time>
      </trkpt>
      <trkpt lat="36.489730" lon="-117.228610">
        <ele>710.651</ele>
        <time>2018-12-28T22:31:59Z</time>
      </trkpt>
      <trkpt lat="36.490290" lon="-117.228430">
        <ele>706.079</ele>
        <time>2018-12-28T22:32:19Z</time>
      </trkpt>
      <trkpt lat="36.491220" lon="-117.228150">
        <ele>697.764</ele>
        <time>2018-12-28T22:32:39Z</time>
      </trkpt>
      <trkpt lat="36.493430" lon="-117.227460">
        <ele>679.774</ele>
        <time>2018-12-28T22:32:59Z</time>
      </trkpt>
      <trkpt lat="36.494980" lon="-117.227030">
        <ele>669.668</ele>
        <time>2018-12-28T22:33:19Z</time>
      </trkpt>
      <trkpt lat="36.495250" lon="-117.226970">
        <ele>667.332</ele>
        <time>2018-12-28T22:33:39Z</time>
      </trkpt>
      <trkpt lat="36.495380" lon="-117.226950">
        <ele>666.251</ele>
        <time>2018-12-28T22:33:59Z</time>
      </trkpt>
      <trkpt lat="36.495400" lon="-117.226950">
        <ele>666.156</ele>
        <time>2018-12-28T22:34:19Z</time>
      </trkpt>
      <trkpt lat="36.495500" lon="-117.226930">
        <ele>665.352</ele>
        <time>2018-12-28T22:34:39Z</time>
      </trkpt>
      <trkpt lat="36.495610" lon="-117.226930">
        <ele>664.553</ele>
        <time>2018-12-28T22:34:59Z</time>
      </trkpt>
      <trkpt lat="36.495750" lon="-117.226920">
        <ele>663.608</ele>
        <time>2018-12-28T22:35:19Z</time>
      </trkpt>
      <trkpt lat="36.495880" lon="-117.226910">
        <ele>662.808</ele>
        <time>2018-12-28T22:35:39Z</time>
      </trkpt>
      <trkpt lat="36.495890" lon="-117.226910">
        <ele>662.758</ele>
        <time>2018-12-28T22:35:59Z</time>
      </trkpt>
      <trkpt lat="36.496550" lon="-117.226900">
        <ele>658.246</ele>
        <time>2018-12-28T22:36:19Z</time>
      </trkpt>
      <trkpt lat="36.496870" lon="-117.226890">
        <ele>655.741</ele>
        <time>2018-12-28T22:36:39Z</time>
      </trkpt>
      <trkpt lat="36.497280" lon="-117.226890">
        <ele>652.861</ele>
        <time>2018-12-28T22:36:59Z</time>
      </trkpt>
      <trkpt lat="36.497820" lon="-117.226870">
        <ele>650.075</ele>
        <time>2018-12-28T22:37:19Z</time>
      </trkpt>
      <trkpt lat="36.498160" lon="-117.226860">
        <ele>647.899</ele>
        <time>2018-12-28T22:37:39Z</time>
      </trkpt>
      <trkpt lat="36.498310" lon="-117.226850">
        <ele>646.848</ele>
        <time>2018-12-28T22:37:59Z</time>
      </trkpt>
      <trkpt lat="36.498480" lon="-117.226830">
        <ele>645.613</ele>
        <time>2018-12-28T22:38:19Z</time>
      </trkpt>
      <trkpt lat="36.498670" lon="-117.226800">
        <ele>643.921</ele>
        <time>2018-12-28T22:38:39Z</time>
      </trkpt>
      <trkpt lat="36.498970" lon="-117.226740">
        <ele>641.341</ele>
        <time>2018-12-28T22:38:59Z</time>
      </trkpt>
      <trkpt lat="36.499310" lon="-117.226670">
        <ele>639.305</ele>
        <time>2018-12-28T22:39:19Z</time>
      </trkpt>
      <trkpt lat="36.499590" lon="-117.226600">
        <ele>638.108</ele>
        <time>2018-12-28T22:39:39Z</time>
      </trkpt>
      <trkpt lat="36.500780" lon="-117.226310">
        <ele>631.265</ele>
        <time>2018-12-28T22:39:59Z</time>
      </trkpt>
      <trkpt lat="36.502190" lon="-117.225960">
        <ele>625.963</ele>
        <time>2018-12-28T22:40:19Z</time>
      </trkpt>
      <trkpt lat="36.503150" lon="-117.225720">
        <ele>621.378</ele>
        <time>2018-12-28T22:40:39Z</time>
      </trkpt>
      <trkpt lat="36.505150" lon="-117.225170">
        <ele>606.448</ele>
        <time>2018-12-28T22:40:59Z</time>
      </trkpt>
      <trkpt lat="36.506320" lon="-117.224840">
        <ele>599.092</ele>
        <time>2018-12-28T22:41:19Z</time>
      </trkpt>
      <trkpt lat="36.506540" lon="-117.224790">
        <ele>597.876</ele>
        <time>2018-12-28T22:41:39Z</time>
      </trkpt>
      <trkpt lat="36.506710" lon="-117.224740">
        <ele>596.415</ele>
        <time>2018-12-28T22:41:59Z</time>
      </trkpt>
      <trkpt lat="36.507180" lon="-117.224600">
        <ele>592.750</ele>
        <time>2018-12-28T22:42:19Z</time>
      </trkpt>
      <trkpt lat="36.507770" lon="-117.224440">
        <ele>588.682</ele>
        <time>2018-12-28T22:42:39Z</time>
      </trkpt>
      <trkpt lat="36.508260" lon="-117.224310">
        <ele>585.843</ele>
        <time>2018-12-28T22:42:59Z</time>
      </trkpt>
      <trkpt lat="36.508720" lon="-117.224210">
        <ele>582.417</ele>
        <time>2018-12-28T22:43:19Z</time>
      </trkpt>
      <trkpt lat="36.508950" lon="-117.224160">
        <ele>580.708</ele>
        <time>2018-12-28T22:43:39Z</time>
      </trkpt>
      <trkpt lat="36.509070" lon="-117.224140">
        <ele>579.991</ele>
        <time>2018-12-28T22:43:59Z</time>
      </trkpt>
      <trkpt lat="36.509180" lon="-117.224130">
        <ele>579.199</ele>
        <time>2018-12-28T22:44:19Z</time>
      </trkpt>
      <trkpt lat="36.509330" lon="-117.224110">
        <ele>578.264</ele>
        <time>2018-12-28T22:44:39Z</time>
      </trkpt>
      <trkpt lat="36.509580" lon="-117.224090">
        <ele>576.644</ele>
        <time>2018-12-28T22:44:59Z</time>
      </trkpt>
      <trkpt lat="36.509830" lon="-117.224070">
        <ele>575.288</ele>
        <time>2018-12-28T22:45:19Z</time>
      </trkpt>
      <trkpt lat="36.510110" lon="-117.224060">
        <ele>573.962</ele>
        <time>2018-12-28T22:45:39Z</time>
      </trkpt>
      <trkpt lat="36.510320" lon="-117.224040">
        <ele>572.591</ele>
        <time>2018-12-28T22:45:59Z</time>
      </trkpt>
      <trkpt lat="36.510590" lon="-117.224020">
        <ele>570.776</ele>
        <time>2018-12-28T22:46:19Z</time>
      </trkpt>
      <trkpt lat="36.510860" lon="-117.224000">
        <ele>568.945</ele>
        <time>2018-12-28T22:46:39Z</time>
      </trkpt>
      <trkpt lat="36.511340" lon="-117.223970">
        <ele>566.047</ele>
        <time>2018-12-28T22:46:59Z</time>
      </trkpt>
      <trkpt lat="36.511570" lon="-117.223960">
        <ele>564.811</ele>
        <time>2018-12-28T22:47:19Z</time>
      </trkpt>
      <trkpt lat="36.511800" lon="-117.223950">
        <ele>563.508</ele>
        <time>2018-12-28T22:47:39Z</time>
      </trkpt>
      <trkpt lat="36.512080" lon="-117.223930">
        <ele>562.287</ele>
        <time>2018-12-28T22:47:59Z</time>
      </trkpt>
      <trkpt lat="36.512260" lon="-117.223920">
        <ele>561.355</ele>
        <time>2018-12-28T22:48:19Z</time>
      </trkpt>
      <trkpt lat="36.512430" lon="-117.223910">
        <ele>560.380</ele>
        <time>2018-12-28T22:48:39Z</time>
      </trkpt>
      <trkpt lat="36.512580" lon="-117.223900">
        <ele>559.280</ele>
        <time>2018-12-28T22:48:59Z</time>
      </trkpt>
      <trkpt lat="36.512750" lon="-117.223890">
        <ele>557.934</ele>
        <time>2018-12-28T22:49:19Z</time>
      </trkpt>
      <trkpt lat="36.512950" lon="-117.223870">
        <ele>556.598</ele>
        <time>2018-12-28T22:49:39Z</time>
      </trkpt>
      <trkpt lat="36.513170" lon="-117.223860">
        <ele>555.097</ele>
        <time>2018-12-28T22:49:59Z</time>
      </trkpt>
      <trkpt lat="36.513510" lon="-117.223830">
        <ele>553.182</ele>
        <time>2018-12-28T22:50:19Z</time>
      </trkpt>
      <trkpt lat="36.513800" lon="-117.223820">
        <ele>551.721</ele>
        <time>2018-12-28T22:50:39Z</time>
      </trkpt>
      <trkpt lat="36.514070" lon="-117.223790">
        <ele>550.341</ele>
        <time>2018-12-28T22:50:59Z</time>
      </trkpt>
      <trkpt lat="36.514420" lon="-117.223770">
        <ele>548.305</ele>
        <time>2018-12-28T22:51:19Z</time>
      </trkpt>
      <trkpt lat="36.514700" lon="-117.223740">
        <ele>545.908</ele>
        <time>2018-12-28T22:51:39Z</time>
      </trkpt>
      <trkpt lat="36.514940" lon="-117.223710">
        <ele>543.885</ele>
        <time>2018-12-28T22:51:59Z</time>
      </trkpt>
      <trkpt lat="36.515190" lon="-117.223670">
        <ele>542.013</ele>
        <time>2018-12-28T22:52:19Z</time>
      </trkpt>
      <trkpt lat="36.515380" lon="-117.223640">
        <ele>540.928</ele>
        <time>2018-12-28T22:52:39Z</time>
      </trkpt>
      <trkpt lat="36.515600" lon="-117.223600">
        <ele>539.818</ele>
        <time>2018-12-28T22:52:59Z</time>
      </trkpt>
      <trkpt lat="36.515770" lon="-117.223570">
        <ele>539.062</ele>
        <time>2018-12-28T22:53:19Z</time>
      </trkpt>
      <trkpt lat="36.516010" lon="-117.223520">
        <ele>537.826</ele>
        <time>2018-12-28T22:53:39Z</time>
      </trkpt>
      <trkpt lat="36.516200" lon="-117.223490">
        <ele>537.275</ele>
        <time>2018-12-28T22:53:59Z</time>
      </trkpt>
      <trkpt lat="36.516750" lon="-117.223380">
        <ele>532.480</ele>
        <time>2018-12-28T22:54:19Z</time>
      </trkpt>
      <trkpt lat="36.516890" lon="-117.223350">
        <ele>531.332</ele>
        <time>2018-12-28T22:54:39Z</time>
      </trkpt>
      <trkpt lat="36.517070" lon="-117.223320">
        <ele>530.192</ele>
        <time>2018-12-28T22:54:59Z</time>
      </trkpt>
      <trkpt lat="36.517410" lon="-117.223240">
        <ele>528.311</ele>
        <time>2018-12-28T22:55:19Z</time>
      </trkpt>
      <trkpt lat="36.517780" lon="-117.223180">
        <ele>526.608</ele>
        <time>2018-12-28T22:55:39Z</time>
      </trkpt>
      <trkpt lat="36.517960" lon="-117.223140">
        <ele>525.946</ele>
        <time>2018-12-28T22:55:59Z</time>
      </trkpt>
      <trkpt lat="36.518410" lon="-117.223060">
        <ele>523.974</ele>
        <time>2018-12-28T22:56:19Z</time>
      </trkpt>
      <trkpt lat="36.518610" lon="-117.223020">
        <ele>522.059</ele>
        <time>2018-12-28T22:56:39Z</time>
      </trkpt>
      <trkpt lat="36.518850" lon="-117.222960">
        <ele>519.739</ele>
        <time>2018-12-28T22:56:59Z</time>
      </trkpt>
      <trkpt lat="36.519150" lon="-117.222910">
        <ele>517.743</ele>
        <time>2018-12-28T22:57:19Z</time>
      </trkpt>
      <trkpt lat="36.519290" lon="-117.222870">
        <ele>517.077</ele>
        <time>2018-12-28T22:57:39Z</time>
      </trkpt>
      <trkpt lat="36.519540" lon="-117.222820">
        <ele>515.966</ele>
        <time>2018-12-28T22:57:59Z</time>
      </trkpt>
      <trkpt lat="36.519730" lon="-117.222760">
        <ele>515.251</ele>
        <time>2018-12-28T22:58:19Z</time>
      </trkpt>
      <trkpt lat="36.519910" lon="-117.222700">
        <ele>514.667</ele>
        <time>2018-12-28T22:58:39Z</time>
      </trkpt>
      <trkpt lat="36.520090" lon="-117.222640">
        <ele>514.181</ele>
        <time>2018-12-28T22:58:59Z</time>
      </trkpt>
      <trkpt lat="36.520500" lon="-117.222490">
        <ele>512.919</ele>
        <time>2018-12-28T22:59:19Z</time>
      </trkpt>
      <trkpt lat="36.521080" lon="-117.222250">
        <ele>506.508</ele>
        <time>2018-12-28T22:59:39Z</time>
      </trkpt>
      <trkpt lat="36.521810" lon="-117.221960">
        <ele>501.739</ele>
        <time>2018-12-28T22:59:59Z</time>
      </trkpt>
      <trkpt lat="36.522270" lon="-117.221780">
        <ele>501.657</ele>
        <time>2018-12-28T23:00:19Z</time>
      </trkpt>
      <trkpt lat="36.522760" lon="-117.221580">
        <ele>500.222</ele>
        <time>2018-12-28T23:00:39Z</time>
      </trkpt>
      <trkpt lat="36.523220" lon="-117.221390">
        <ele>495.062</ele>
        <time>2018-12-28T23:00:59Z</time>
      </trkpt>
      <trkpt lat="36.523960" lon="-117.221100">
        <ele>491.216</ele>
        <time>2018-12-28T23:01:19Z</time>
      </trkpt>
      <trkpt lat="36.524550" lon="-117.220880">
        <ele>489.180</ele>
        <time>2018-12-28T23:01:39Z</time>
      </trkpt>
      <trkpt lat="36.525200" lon="-117.220650">
        <ele>483.519</ele>
        <time>2018-12-28T23:01:59Z</time>
      </trkpt>
      <trkpt lat="36.525790" lon="-117.220450">
        <ele>479.044</ele>
        <time>2018-12-28T23:02:19Z</time>
      </trkpt>
      <trkpt lat="36.526220" lon="-117.220300">
        <ele>476.815</ele>
        <time>2018-12-28T23:02:39Z</time>
      </trkpt>
      <trkpt lat="36.526780" lon="-117.220110">
        <ele>472.265</ele>
        <time>2018-12-28T23:02:59Z</time>
      </trkpt>
      <trkpt lat="36.527680" lon="-117.219800">
        <ele>465.611</ele>
        <time>2018-12-28T23:03:19Z</time>
      </trkpt>
      <trkpt lat="36.528110" lon="-117.219650">
        <ele>463.208</ele>
        <time>2018-12-28T23:03:39Z</time>
      </trkpt>
      <trkpt lat="36.528960" lon="-117.219350">
        <ele>455.874</ele>
        <time>2018-12-28T23:03:59Z</time>
      </trkpt>
      <trkpt lat="36.529420" lon="-117.219180">
        <ele>452.672</ele>
        <time>2018-12-28T23:04:19Z</time>
      </trkpt>
      <trkpt lat="36.529620" lon="-117.219110">
        <ele>451.627</ele>
        <time>2018-12-28T23:04:39Z</time>
      </trkpt>
      <trkpt lat="36.529840" lon="-117.219000">
        <ele>449.937</ele>
        <time>2018-12-28T23:04:59Z</time>
      </trkpt>
      <trkpt lat="36.530190" lon="-117.218820">
        <ele>447.051</ele>
        <time>2018-12-28T23:05:19Z</time>
      </trkpt>
      <trkpt lat="36.530460" lon="-117.218670">
        <ele>444.975</ele>
        <time>2018-12-28T23:05:39Z</time>
      </trkpt>
      <trkpt lat="36.530800" lon="-117.218470">
        <ele>442.564</ele>
        <time>2018-12-28T23:05:59Z</time>
      </trkpt>
      <trkpt lat="36.531250" lon="-117.218210">
        <ele>439.949</ele>
        <time>2018-12-28T23:06:19Z</time>
      </trkpt>
      <trkpt lat="36.531680" lon="-117.217960">
        <ele>435.676</ele>
        <time>2018-12-28T23:06:39Z</time>
      </trkpt>
      <trkpt lat="36.532090" lon="-117.217710">
        <ele>431.990</ele>
        <time>2018-12-28T23:06:59Z</time>
      </trkpt>
      <trkpt lat="36.532450" lon="-117.217500">
        <ele>429.619</ele>
        <time>2018-12-28T23:07:19Z</time>
      </trkpt>
      <trkpt lat="36.532800" lon="-117.217290">
        <ele>427.708</ele>
        <time>2018-12-28T23:07:39Z</time>
      </trkpt>
      <trkpt lat="36.533210" lon="-117.217060">
        <ele>424.190</ele>
        <time>2018-12-28T23:07:59Z</time>
      </trkpt>
      <trkpt lat="36.533530" lon="-117.216870">
        <ele>422.578</ele>
        <time>2018-12-28T23:08:19Z</time>
      </trkpt>
      <trkpt lat="36.533870" lon="-117.216670">
        <ele>420.713</ele>
        <time>2018-12-28T23:08:39Z</time>
      </trkpt>
      <trkpt lat="36.534150" lon="-117.216510">
        <ele>419.333</ele>
        <time>2018-12-28T23:08:59Z</time>
      </trkpt>
      <trkpt lat="36.534430" lon="-117.216350">
        <ele>417.487</ele>
        <time>2018-12-28T23:09:19Z</time>
      </trkpt>
      <trkpt lat="36.534710" lon="-117.216190">
        <ele>415.851</ele>
        <time>2018-12-28T23:09:39Z</time>
      </trkpt>
      <trkpt lat="36.534770" lon="-117.216160">
        <ele>415.610</ele>
        <time>2018-12-28T23:09:59Z</time>
      </trkpt>
      <trkpt lat="36.537600" lon="-117.214520">
        <ele>397.455</ele>
        <time>2018-12-28T23:10:19Z</time>
      </trkpt>
      <trkpt lat="36.538100" lon="-117.214230">
        <ele>394.266</ele>
        <time>2018-12-28T23:10:39Z</time>
      </trkpt>
      <trkpt lat="36.538460" lon="-117.214020">
        <ele>392.129</ele>
        <time>2018-12-28T23:10:59Z</time>
      </trkpt>
      <trkpt lat="36.538540" lon="-117.213970">
        <ele>391.721</ele>
        <time>2018-12-28T23:11:19Z</time>
      </trkpt>
      <trkpt lat="36.538600" lon="-117.213940">
        <ele>391.408</ele>
        <time>2018-12-28T23:11:39Z</time>
      </trkpt>
      <trkpt lat="36.538750" lon="-117.213860">
        <ele>390.749</ele>
        <time>2018-12-28T23:11:59Z</time>
      </trkpt>
      <trkpt lat="36.538960" lon="-117.213740">
        <ele>389.097</ele>
        <time>2018-12-28T23:12:19Z</time>
      </trkpt>
      <trkpt lat="36.539210" lon="-117.213590">
        <ele>386.822</ele>
        <time>2018-12-28T23:12:39Z</time>
      </trkpt>
      <trkpt lat="36.540050" lon="-117.213100">
        <ele>381.212</ele>
        <time>2018-12-28T23:12:59Z</time>
      </trkpt>
      <trkpt lat="36.540630" lon="-117.212770">
        <ele>377.686</ele>
        <time>2018-12-28T23:13:19Z</time>
      </trkpt>
      <trkpt lat="36.541110" lon="-117.212490">
        <ele>371.190</ele>
        <time>2018-12-28T23:13:39Z</time>
      </trkpt>
      <trkpt lat="36.541540" lon="-117.212240">
        <ele>367.519</ele>
        <time>2018-12-28T23:13:59Z</time>
      </trkpt>
      <trkpt lat="36.541790" lon="-117.212090">
        <ele>365.654</ele>
        <time>2018-12-28T23:14:19Z</time>
      </trkpt>
      <trkpt lat="36.542230" lon="-117.211840">
        <ele>362.632</ele>
        <time>2018-12-28T23:14:39Z</time>
      </trkpt>
      <trkpt lat="36.543090" lon="-117.211340">
        <ele>356.492</ele>
        <time>2018-12-28T23:14:59Z</time>
      </trkpt>
      <trkpt lat="36.543870" lon="-117.210880">
        <ele>351.711</ele>
        <time>2018-12-28T23:15:19Z</time>
      </trkpt>
      <trkpt lat="36.544290" lon="-117.210640">
        <ele>349.508</ele>
        <time>2018-12-28T23:15:39Z</time>
      </trkpt>
      <trkpt lat="36.544730" lon="-117.210390">
        <ele>346.726</ele>
        <time>2018-12-28T23:15:59Z</time>
      </trkpt>
      <trkpt lat="36.545500" lon="-117.209930">
        <ele>341.794</ele>
        <time>2018-12-28T23:16:19Z</time>
      </trkpt>
      <trkpt lat="36.545950" lon="-117.209680">
        <ele>338.829</ele>
        <time>2018-12-28T23:16:39Z</time>
      </trkpt>
      <trkpt lat="36.546510" lon="-117.209360">
        <ele>335.049</ele>
        <time>2018-12-28T23:16:59Z</time>
      </trkpt>
      <trkpt lat="36.546800" lon="-117.209190">
        <ele>332.823</ele>
        <time>2018-12-28T23:17:19Z</time>
      </trkpt>
      <trkpt lat="36.547080" lon="-117.209020">
        <ele>330.837</ele>
        <time>2018-12-28T23:17:39Z</time>
      </trkpt>
      <trkpt lat="36.547660" lon="-117.208680">
        <ele>327.376</ele>
        <time>2018-12-28T23:17:59Z</time>
      </trkpt>
      <trkpt lat="36.548170" lon="-117.208400">
        <ele>324.271</ele>
        <time>2018-12-28T23:18:19Z</time>
      </trkpt>
      <trkpt lat="36.548750" lon="-117.208070">
        <ele>320.639</ele>
        <time>2018-12-28T23:18:39Z</time>
      </trkpt>
      <trkpt lat="36.549290" lon="-117.207750">
        <ele>317.701</ele>
        <time>2018-12-28T23:18:59Z</time>
      </trkpt>
      <trkpt lat="36.550030" lon="-117.207320">
        <ele>313.421</ele>
        <time>2018-12-28T23:19:19Z</time>
      </trkpt>
      <trkpt lat="36.550650" lon="-117.206970">
        <ele>309.208</ele>
        <time>2018-12-28T23:19:39Z</time>
      </trkpt>
      <trkpt lat="36.551170" lon="-117.206660">
        <ele>307.666</ele>
        <time>2018-12-28T23:19:59Z</time>
      </trkpt>
      <trkpt lat="36.551710" lon="-117.206340">
        <ele>305.654</ele>
        <time>2018-12-28T23:20:19Z</time>
      </trkpt>
      <trkpt lat="36.552250" lon="-117.206010">
        <ele>304.429</ele>
        <time>2018-12-28T23:20:39Z</time>
      </trkpt>
      <trkpt lat="36.552730" lon="-117.205750">
        <ele>304.119</ele>
        <time>2018-12-28T23:20:59Z</time>
      </trkpt>
      <trkpt lat="36.553380" lon="-117.205380">
        <ele>301.793</ele>
        <time>2018-12-28T23:21:19Z</time>
      </trkpt>
      <trkpt lat="36.553830" lon="-117.205110">
        <ele>299.477</ele>
        <time>2018-12-28T23:21:39Z</time>
      </trkpt>
      <trkpt lat="36.554010" lon="-117.205000">
        <ele>298.586</ele>
        <time>2018-12-28T23:21:59Z</time>
      </trkpt>
      <trkpt lat="36.554310" lon="-117.204840">
        <ele>296.911</ele>
        <time>2018-12-28T23:22:19Z</time>
      </trkpt>
      <trkpt lat="36.554950" lon="-117.204460">
        <ele>292.457</ele>
        <time>2018-12-28T23:22:39Z</time>
      </trkpt>
      <trkpt lat="36.555340" lon="-117.204230">
        <ele>289.000</ele>
        <time>2018-12-28T23:22:59Z</time>
      </trkpt>
      <trkpt lat="36.555840" lon="-117.203950">
        <ele>284.020</ele>
        <time>2018-12-28T23:23:19Z</time>
      </trkpt>
      <trkpt lat="36.556220" lon="-117.203720">
        <ele>280.808</ele>
        <time>2018-12-28T23:23:39Z</time>
      </trkpt>
      <trkpt lat="36.556720" lon="-117.203440">
        <ele>276.028</ele>
        <time>2018-12-28T23:23:59Z</time>
      </trkpt>
      <trkpt lat="36.557240" lon="-117.203140">
        <ele>271.846</ele>
        <time>2018-12-28T23:24:19Z</time>
      </trkpt>
      <trkpt lat="36.557760" lon="-117.202830">
        <ele>267.331</ele>
        <time>2018-12-28T23:24:39Z</time>
      </trkpt>
      <trkpt lat="36.558090" lon="-117.202640">
        <ele>263.431</ele>
        <time>2018-12-28T23:24:59Z</time>
      </trkpt>
      <trkpt lat="36.558630" lon="-117.202330">
        <ele>258.395</ele>
        <time>2018-12-28T23:25:19Z</time>
      </trkpt>
      <trkpt lat="36.559040" lon="-117.202100">
        <ele>253.549</ele>
        <time>2018-12-28T23:25:39Z</time>
      </trkpt>
      <trkpt lat="36.559790" lon="-117.201660">
        <ele>245.748</ele>
        <time>2018-12-28T23:25:59Z</time>
      </trkpt>
      <trkpt lat="36.560640" lon="-117.201180">
        <ele>238.483</ele>
        <time>2018-12-28T23:26:19Z</time>
      </trkpt>
      <trkpt lat="36.561330" lon="-117.200770">
        <ele>234.123</ele>
        <time>2018-12-28T23:26:39Z</time>
      </trkpt>
      <trkpt lat="36.562140" lon="-117.200310">
        <ele>225.983</ele>
        <time>2018-12-28T23:26:59Z</time>
      </trkpt>
      <trkpt lat="36.562520" lon="-117.200080">
        <ele>222.811</ele>
        <time>2018-12-28T23:27:19Z</time>
      </trkpt>
      <trkpt lat="36.562630" lon="-117.200020">
        <ele>222.008</ele>
        <time>2018-12-28T23:27:39Z</time>
      </trkpt>
      <trkpt lat="36.562770" lon="-117.199930">
        <ele>221.095</ele>
        <time>2018-12-28T23:27:59Z</time>
      </trkpt>
      <trkpt lat="36.562920" lon="-117.199840">
        <ele>220.183</ele>
        <time>2018-12-28T23:28:19Z</time>
      </trkpt>
      <trkpt lat="36.563060" lon="-117.199740">
        <ele>218.068</ele>
        <time>2018-12-28T23:28:39Z</time>
      </trkpt>
      <trkpt lat="36.563190" lon="-117.199650">
        <ele>216.588</ele>
        <time>2018-12-28T23:28:59Z</time>
      </trkpt>
      <trkpt lat="36.563330" lon="-117.199550">
        <ele>214.832</ele>
        <time>2018-12-28T23:29:19Z</time>
      </trkpt>
      <trkpt lat="36.563470" lon="-117.199450">
        <ele>213.136</ele>
        <time>2018-12-28T23:29:39Z</time>
      </trkpt>
      <trkpt lat="36.563610" lon="-117.199350">
        <ele>212.185</ele>
        <time>2018-12-28T23:29:59Z</time>
      </trkpt>
      <trkpt lat="36.563740" lon="-117.199240">
        <ele>211.150</ele>
        <time>2018-12-28T23:30:19Z</time>
      </trkpt>
      <trkpt lat="36.563910" lon="-117.199110">
        <ele>209.941</ele>
        <time>2018-12-28T23:30:39Z</time>
      </trkpt>
      <trkpt lat="36.564080" lon="-117.198970">
        <ele>208.581</ele>
        <time>2018-12-28T23:30:59Z</time>
      </trkpt>
      <trkpt lat="36.564250" lon="-117.198830">
        <ele>207.009</ele>
        <time>2018-12-28T23:31:19Z</time>
      </trkpt>
      <trkpt lat="36.564410" lon="-117.198680">
        <ele>205.208</ele>
        <time>2018-12-28T23:31:39Z</time>
      </trkpt>
      <trkpt lat="36.564580" lon="-117.198540">
        <ele>203.337</ele>
        <time>2018-12-28T23:31:59Z</time>
      </trkpt>
      <trkpt lat="36.564740" lon="-117.198380">
        <ele>201.615</ele>
        <time>2018-12-28T23:32:19Z</time>
      </trkpt>
      <trkpt lat="36.564900" lon="-117.198230">
        <ele>199.940</ele>
        <time>2018-12-28T23:32:39Z</time>
      </trkpt>
      <trkpt lat="36.565060" lon="-117.198070">
        <ele>198.250</ele>
        <time>2018-12-28T23:32:59Z</time>
      </trkpt>
      <trkpt lat="36.565200" lon="-117.197930">
        <ele>196.914</ele>
        <time>2018-12-28T23:33:19Z</time>
      </trkpt>
      <trkpt lat="36.565340" lon="-117.197790">
        <ele>195.738</ele>
        <time>2018-12-28T23:33:39Z</time>
      </trkpt>
      <trkpt lat="36.565470" lon="-117.197640">
        <ele>194.757</ele>
        <time>2018-12-28T23:33:59Z</time>
      </trkpt>
      <trkpt lat="36.565610" lon="-117.197490">
        <ele>193.362</ele>
        <time>2018-12-28T23:34:19Z</time>
      </trkpt>
      <trkpt lat="36.565750" lon="-117.197340">
        <ele>191.925</ele>
        <time>2018-12-28T23:34:39Z</time>
      </trkpt>
      <trkpt lat="36.565880" lon="-117.197190">
        <ele>190.726</ele>
        <time>2018-12-28T23:34:59Z</time>
      </trkpt>
      <trkpt lat="36.566010" lon="-117.197040">
        <ele>189.508</ele>
        <time>2018-12-28T23:35:19Z</time>
      </trkpt>
      <trkpt lat="36.566140" lon="-117.196880">
        <ele>188.308</ele>
        <time>2018-12-28T23:35:39Z</time>
      </trkpt>
      <trkpt lat="36.566260" lon="-117.196730">
        <ele>187.235</ele>
        <time>2018-12-28T23:35:59Z</time>
      </trkpt>
      <trkpt lat="36.566380" lon="-117.196580">
        <ele>186.243</ele>
        <time>2018-12-28T23:36:19Z</time>
      </trkpt>
      <trkpt lat="36.566510" lon="-117.196430">
        <ele>185.418</ele>
        <time>2018-12-28T23:36:39Z</time>
      </trkpt>
      <trkpt lat="36.566630" lon="-117.196280">
        <ele>184.828</ele>
        <time>2018-12-28T23:36:59Z</time>
      </trkpt>
      <trkpt lat="36.566750" lon="-117.196120">
        <ele>184.122</ele>
        <time>2018-12-28T23:37:19Z</time>
      </trkpt>
      <trkpt lat="36.566870" lon="-117.195970">
        <ele>183.236</ele>
        <time>2018-12-28T23:37:39Z</time>
      </trkpt>
      <trkpt lat="36.566990" lon="-117.195820">
        <ele>182.065</ele>
        <time>2018-12-28T23:37:59Z</time>
      </trkpt>
      <trkpt lat="36.567110" lon="-117.195670">
        <ele>181.070</ele>
        <time>2018-12-28T23:38:19Z</time>
      </trkpt>
      <trkpt lat="36.567230" lon="-117.195520">
        <ele>180.081</ele>
        <time>2018-12-28T23:38:39Z</time>
      </trkpt>
      <trkpt lat="36.567340" lon="-117.195370">
        <ele>179.261</ele>
        <time>2018-12-28T23:38:59Z</time>
      </trkpt>
      <trkpt lat="36.567460" lon="-117.195230">
        <ele>178.317</ele>
        <time>2018-12-28T23:39:19Z</time>
      </trkpt>
      <trkpt lat="36.567570" lon="-117.195080">
        <ele>177.508</ele>
        <time>2018-12-28T23:39:39Z</time>
      </trkpt>
      <trkpt lat="36.567690" lon="-117.194930">
        <ele>176.761</ele>
        <time>2018-12-28T23:39:59Z</time>
      </trkpt>
      <trkpt lat="36.567810" lon="-117.194780">
        <ele>175.979</ele>
        <time>2018-12-28T23:40:19Z</time>
      </trkpt>
      <trkpt lat="36.567920" lon="-117.194630">
        <ele>175.334</ele>
        <time>2018-12-28T23:40:39Z</time>
      </trkpt>
      <trkpt lat="36.568250" lon="-117.194220">
        <ele>173.624</ele>
        <time>2018-12-28T23:40:59Z</time>
      </trkpt>
      <trkpt lat="36.568660" lon="-117.193700">
        <ele>171.198</ele>
        <time>2018-12-28T23:41:19Z</time>
      </trkpt>
      <trkpt lat="36.568760" lon="-117.193560">
        <ele>170.162</ele>
        <time>2018-12-28T23:41:39Z</time>
      </trkpt>
      <trkpt lat="36.568860" lon="-117.193430">
        <ele>169.151</ele>
        <time>2018-12-28T23:41:59Z</time>
      </trkpt>
      <trkpt lat="36.568970" lon="-117.193300">
        <ele>168.216</ele>
        <time>2018-12-28T23:42:19Z</time>
      </trkpt>
      <trkpt lat="36.569070" lon="-117.193170">
        <ele>167.364</ele>
        <time>2018-12-28T23:42:39Z</time>
      </trkpt>
      <trkpt lat="36.569180" lon="-117.193040">
        <ele>166.406</ele>
        <time>2018-12-28T23:42:59Z</time>
      </trkpt>
      <trkpt lat="36.569290" lon="-117.192900">
        <ele>165.416</ele>
        <time>2018-12-28T23:43:19Z</time>
      </trkpt>
      <trkpt lat="36.569390" lon="-117.192770">
        <ele>164.608</ele>
        <time>2018-12-28T23:43:39Z</time>
      </trkpt>
      <trkpt lat="36.569500" lon="-117.192640">
        <ele>163.779</ele>
        <time>2018-12-28T23:43:59Z</time>
      </trkpt>
      <trkpt lat="36.569660" lon="-117.192440">
        <ele>162.777</ele>
        <time>2018-12-28T23:44:19Z</time>
      </trkpt>
      <trkpt lat="36.569820" lon="-117.192230">
        <ele>161.722</ele>
        <time>2018-12-28T23:44:39Z</time>
      </trkpt>
      <trkpt lat="36.569980" lon="-117.192030">
        <ele>160.612</ele>
        <time>2018-12-28T23:44:59Z</time>
      </trkpt>
      <trkpt lat="36.570140" lon="-117.191820">
        <ele>159.036</ele>
        <time>2018-12-28T23:45:19Z</time>
      </trkpt>
      <trkpt lat="36.570310" lon="-117.191610">
        <ele>157.620</ele>
        <time>2018-12-28T23:45:39Z</time>
      </trkpt>
      <trkpt lat="36.570470" lon="-117.191410">
        <ele>156.489</ele>
        <time>2018-12-28T23:45:59Z</time>
      </trkpt>
      <trkpt lat="36.570630" lon="-117.191200">
        <ele>155.124</ele>
        <time>2018-12-28T23:46:19Z</time>
      </trkpt>
      <trkpt lat="36.570790" lon="-117.190990">
        <ele>153.829</ele>
        <time>2018-12-28T23:46:39Z</time>
      </trkpt>
      <trkpt lat="36.570970" lon="-117.190770">
        <ele>152.400</ele>
        <time>2018-12-28T23:46:59Z</time>
      </trkpt>
      <trkpt lat="36.571150" lon="-117.190540">
        <ele>150.920</ele>
        <time>2018-12-28T23:47:19Z</time>
      </trkpt>
      <trkpt lat="36.571330" lon="-117.190310">
        <ele>149.308</ele>
        <time>2018-12-28T23:47:39Z</time>
      </trkpt>
      <trkpt lat="36.571510" lon="-117.190080">
        <ele>147.765</ele>
        <time>2018-12-28T23:47:59Z</time>
      </trkpt>
      <trkpt lat="36.571690" lon="-117.189850">
        <ele>146.083</ele>
        <time>2018-12-28T23:48:19Z</time>
      </trkpt>
      <trkpt lat="36.571870" lon="-117.189620">
        <ele>144.658</ele>
        <time>2018-12-28T23:48:39Z</time>
      </trkpt>
      <trkpt lat="36.572050" lon="-117.189390">
        <ele>143.248</ele>
        <time>2018-12-28T23:48:59Z</time>
      </trkpt>
      <trkpt lat="36.572230" lon="-117.189160">
        <ele>141.932</ele>
        <time>2018-12-28T23:49:19Z</time>
      </trkpt>
      <trkpt lat="36.572350" lon="-117.189020">
        <ele>141.176</ele>
        <time>2018-12-28T23:49:39Z</time>
      </trkpt>
      <trkpt lat="36.572460" lon="-117.188870">
        <ele>140.495</ele>
        <time>2018-12-28T23:49:59Z</time>
      </trkpt>
      <trkpt lat="36.572580" lon="-117.188720">
        <ele>139.720</ele>
        <time>2018-12-28T23:50:19Z</time>
      </trkpt>
      <trkpt lat="36.572700" lon="-117.188570">
        <ele>139.158</ele>
        <time>2018-12-28T23:50:39Z</time>
      </trkpt>
      <trkpt lat="36.572820" lon="-117.188420">
        <ele>138.452</ele>
        <time>2018-12-28T23:50:59Z</time>
      </trkpt>
      <trkpt lat="36.572940" lon="-117.188270">
        <ele>137.817</ele>
        <time>2018-12-28T23:51:19Z</time>
      </trkpt>
      <trkpt lat="36.573050" lon="-117.188120">
        <ele>137.008</ele>
        <time>2018-12-28T23:51:39Z</time>
      </trkpt>
      <trkpt lat="36.573170" lon="-117.187980">
        <ele>136.268</ele>
        <time>2018-12-28T23:51:59Z</time>
      </trkpt>
      <trkpt lat="36.573380" lon="-117.187720">
        <ele>134.296</ele>
        <time>2018-12-28T23:52:19Z</time>
      </trkpt>
      <trkpt lat="36.573590" lon="-117.187450">
        <ele>132.291</ele>
        <time>2018-12-28T23:52:39Z</time>
      </trkpt>
      <trkpt lat="36.573800" lon="-117.187190">
        <ele>130.671</ele>
        <time>2018-12-28T23:52:59Z</time>
      </trkpt>
      <trkpt lat="36.574000" lon="-117.186930">
        <ele>129.075</ele>
        <time>2018-12-28T23:53:19Z</time>
      </trkpt>
      <trkpt lat="36.574210" lon="-117.186660">
        <ele>127.239</ele>
        <time>2018-12-28T23:53:39Z</time>
      </trkpt>
      <trkpt lat="36.574410" lon="-117.186400">
        <ele>125.618</ele>
        <time>2018-12-28T23:53:59Z</time>
      </trkpt>
      <trkpt lat="36.574620" lon="-117.186140">
        <ele>124.023</ele>
        <time>2018-12-28T23:54:19Z</time>
      </trkpt>
      <trkpt lat="36.574830" lon="-117.185880">
        <ele>122.283</ele>
        <time>2018-12-28T23:54:39Z</time>
      </trkpt>
      <trkpt lat="36.575250" lon="-117.185360">
        <ele>117.525</ele>
        <time>2018-12-28T23:54:59Z</time>
      </trkpt>
      <trkpt lat="36.575440" lon="-117.185120">
        <ele>116.117</ele>
        <time>2018-12-28T23:55:19Z</time>
      </trkpt>
      <trkpt lat="36.575770" lon="-117.184700">
        <ele>114.208</ele>
        <time>2018-12-28T23:55:39Z</time>
      </trkpt>
      <trkpt lat="36.576110" lon="-117.184270">
        <ele>112.031</ele>
        <time>2018-12-28T23:55:59Z</time>
      </trkpt>
      <trkpt lat="36.576300" lon="-117.184020">
        <ele>110.619</ele>
        <time>2018-12-28T23:56:19Z</time>
      </trkpt>
      <trkpt lat="36.576490" lon="-117.183780">
        <ele>108.724</ele>
        <time>2018-12-28T23:56:39Z</time>
      </trkpt>
      <trkpt lat="36.576680" lon="-117.183540">
        <ele>107.014</ele>
        <time>2018-12-28T23:56:59Z</time>
      </trkpt>
      <trkpt lat="36.576870" lon="-117.183310">
        <ele>105.588</ele>
        <time>2018-12-28T23:57:19Z</time>
      </trkpt>
      <trkpt lat="36.577060" lon="-117.183070">
        <ele>104.192</ele>
        <time>2018-12-28T23:57:39Z</time>
      </trkpt>
      <trkpt lat="36.577260" lon="-117.182830">
        <ele>102.791</ele>
        <time>2018-12-28T23:57:59Z</time>
      </trkpt>
      <trkpt lat="36.577450" lon="-117.182590">
        <ele>101.426</ele>
        <time>2018-12-28T23:58:19Z</time>
      </trkpt>
      <trkpt lat="36.577630" lon="-117.182340">
        <ele>100.125</ele>
        <time>2018-12-28T23:58:39Z</time>
      </trkpt>
      <trkpt lat="36.578130" lon="-117.181730">
        <ele>98.226</ele>
        <time>2018-12-28T23:58:59Z</time>
      </trkpt>
      <trkpt lat="36.578360" lon="-117.181440">
        <ele>96.908</ele>
        <time>2018-12-28T23:59:19Z</time>
      </trkpt>
      <trkpt lat="36.578790" lon="-117.180890">
        <ele>94.208</ele>
        <time>2018-12-28T23:59:39Z</time>
      </trkpt>
      <trkpt lat="36.578950" lon="-117.180680">
        <ele>93.395</ele>
        <time>2018-12-28T23:59:59Z</time>
      </trkpt>
      <trkpt lat="36.580180" lon="-117.179120">
        <ele>86.323</ele>
        <time>2018-12-29T00:00:19Z</time>
      </trkpt>
      <trkpt lat="36.581750" lon="-117.177150">
        <ele>71.158</ele>
        <time>2018-12-29T00:00:39Z</time>
      </trkpt>
      <trkpt lat="36.582290" lon="-117.176470">
        <ele>67.558</ele>
        <time>2018-12-29T00:00:59Z</time>
      </trkpt>
      <trkpt lat="36.582970" lon="-117.175620">
        <ele>63.712</ele>
        <time>2018-12-29T00:01:19Z</time>
      </trkpt>
      <trkpt lat="36.583550" lon="-117.174880">
        <ele>61.946</ele>
        <time>2018-12-29T00:01:39Z</time>
      </trkpt>
      <trkpt lat="36.584120" lon="-117.174160">
        <ele>60.665</ele>
        <time>2018-12-29T00:01:59Z</time>
      </trkpt>
      <trkpt lat="36.584760" lon="-117.173350">
        <ele>60.060</ele>
        <time>2018-12-29T00:02:19Z</time>
      </trkpt>
      <trkpt lat="36.584860" lon="-117.173210">
        <ele>60.063</ele>
        <time>2018-12-29T00:02:39Z</time>
      </trkpt>
      <trkpt lat="36.585000" lon="-117.173050">
        <ele>60.144</ele>
        <time>2018-12-29T00:02:59Z</time>
      </trkpt>
      <trkpt lat="36.585540" lon="-117.172360">
        <ele>60.318</ele>
        <time>2018-12-29T00:03:19Z</time>
      </trkpt>
      <trkpt lat="36.585830" lon="-117.171990">
        <ele>60.408</ele>
        <time>2018-12-29T00:03:39Z</time>
      </trkpt>
      <trkpt lat="36.586050" lon="-117.171720">
        <ele>60.379</ele>
        <time>2018-12-29T00:03:59Z</time>
      </trkpt>
      <trkpt lat="36.586340" lon="-117.171350">
        <ele>60.087</ele>
        <time>2018-12-29T00:04:19Z</time>
      </trkpt>
      <trkpt lat="36.586470" lon="-117.171200">
        <ele>59.832</ele>
        <time>2018-12-29T00:04:39Z</time>
      </trkpt>
      <trkpt lat="36.587310" lon="-117.170140">
        <ele>59.582</ele>
        <time>2018-12-29T00:04:59Z</time>
      </trkpt>
      <trkpt lat="36.588080" lon="-117.169150">
        <ele>58.766</ele>
        <time>2018-12-29T00:05:19Z</time>
      </trkpt>
      <trkpt lat="36.588450" lon="-117.168680">
        <ele>58.270</ele>
        <time>2018-12-29T00:05:39Z</time>
      </trkpt>
      <trkpt lat="36.588790" lon="-117.168260">
        <ele>57.439</ele>
        <time>2018-12-29T00:05:59Z</time>
      </trkpt>
      <trkpt lat="36.589050" lon="-117.167940">
        <ele>56.464</ele>
        <time>2018-12-29T00:06:19Z</time>
      </trkpt>
      <trkpt lat="36.589430" lon="-117.167450">
        <ele>55.514</ele>
        <time>2018-12-29T00:06:39Z</time>
      </trkpt>
      <trkpt lat="36.589490" lon="-117.167380">
        <ele>55.454</ele>
        <time>2018-12-29T00:06:59Z</time>
      </trkpt>
      <trkpt lat="36.589900" lon="-117.166850">
        <ele>55.309</ele>
        <time>2018-12-29T00:07:19Z</time>
      </trkpt>
      <trkpt lat="36.590080" lon="-117.166630">
        <ele>55.208</ele>
        <time>2018-12-29T00:07:39Z</time>
      </trkpt>
      <trkpt lat="36.590510" lon="-117.166080">
        <ele>54.954</ele>
        <time>2018-12-29T00:07:59Z</time>
      </trkpt>
      <trkpt lat="36.590910" lon="-117.165580">
        <ele>54.882</ele>
        <time>2018-12-29T00:08:19Z</time>
      </trkpt>
      <trkpt lat="36.591270" lon="-117.165120">
        <ele>54.677</ele>
        <time>2018-12-29T00:08:39Z</time>
      </trkpt>
      <trkpt lat="36.591580" lon="-117.164730">
        <ele>54.167</ele>
        <time>2018-12-29T00:08:59Z</time>
      </trkpt>
      <trkpt lat="36.591990" lon="-117.164210">
        <ele>53.641</ele>
        <time>2018-12-29T00:09:19Z</time>
      </trkpt>
      <trkpt lat="36.592420" lon="-117.163670">
        <ele>53.385</ele>
        <time>2018-12-29T00:09:39Z</time>
      </trkpt>
      <trkpt lat="36.592770" lon="-117.163230">
        <ele>52.914</ele>
        <time>2018-12-29T00:09:59Z</time>
      </trkpt>
      <trkpt lat="36.593280" lon="-117.162590">
        <ele>51.619</ele>
        <time>2018-12-29T00:10:19Z</time>
      </trkpt>
      <trkpt lat="36.593500" lon="-117.162310">
        <ele>50.883</ele>
        <time>2018-12-29T00:10:39Z</time>
      </trkpt>
      <trkpt lat="36.593880" lon="-117.161830">
        <ele>50.725</ele>
        <time>2018-12-29T00:10:59Z</time>
      </trkpt>
      <trkpt lat="36.594070" lon="-117.161590">
        <ele>50.617</ele>
        <time>2018-12-29T00:11:19Z</time>
      </trkpt>
      <trkpt lat="36.594490" lon="-117.161050">
        <ele>49.508</ele>
        <time>2018-12-29T00:11:39Z</time>
      </trkpt>
      <trkpt lat="36.594790" lon="-117.160670">
        <ele>48.911</ele>
        <time>2018-12-29T00:11:59Z</time>
      </trkpt>
      <trkpt lat="36.594980" lon="-117.160440">
        <ele>48.859</ele>
        <time>2018-12-29T00:12:19Z</time>
      </trkpt>
      <trkpt lat="36.595180" lon="-117.160200">
        <ele>48.274</ele>
        <time>2018-12-29T00:12:39Z</time>
      </trkpt>
      <trkpt lat="36.595460" lon="-117.159850">
        <ele>47.374</ele>
        <time>2018-12-29T00:12:59Z</time>
      </trkpt>
      <trkpt lat="36.595950" lon="-117.159240">
        <ele>45.918</ele>
        <time>2018-12-29T00:13:19Z</time>
      </trkpt>
      <trkpt lat="36.596470" lon="-117.158570">
        <ele>44.022</ele>
        <time>2018-12-29T00:13:39Z</time>
      </trkpt>
      <trkpt lat="36.596750" lon="-117.158210">
        <ele>43.061</ele>
        <time>2018-12-29T00:13:59Z</time>
      </trkpt>
      <trkpt lat="36.597400" lon="-117.157390">
        <ele>40.956</ele>
        <time>2018-12-29T00:14:19Z</time>
      </trkpt>
      <trkpt lat="36.597950" lon="-117.156700">
        <ele>39.094</ele>
        <time>2018-12-29T00:14:39Z</time>
      </trkpt>
      <trkpt lat="36.598240" lon="-117.156330">
        <ele>37.757</ele>
        <time>2018-12-29T00:14:59Z</time>
      </trkpt>
      <trkpt lat="36.598600" lon="-117.155870">
        <ele>36.622</ele>
        <time>2018-12-29T00:15:19Z</time>
      </trkpt>
      <trkpt lat="36.598960" lon="-117.155410">
        <ele>35.408</ele>
        <time>2018-12-29T00:15:39Z</time>
      </trkpt>
      <trkpt lat="36.599250" lon="-117.155050">
        <ele>34.022</ele>
        <time>2018-12-29T00:15:59Z</time>
      </trkpt>
      <trkpt lat="36.599880" lon="-117.154250">
        <ele>31.550</ele>
        <time>2018-12-29T00:16:19Z</time>
      </trkpt>
      <trkpt lat="36.600140" lon="-117.153920">
        <ele>30.415</ele>
        <time>2018-12-29T00:16:39Z</time>
      </trkpt>
      <trkpt lat="36.600450" lon="-117.153530">
        <ele>29.065</ele>
        <time>2018-12-29T00:16:59Z</time>
      </trkpt>
      <trkpt lat="36.600790" lon="-117.153090">
        <ele>27.419</ele>
        <time>2018-12-29T00:17:19Z</time>
      </trkpt>
      <trkpt lat="36.601210" lon="-117.152570">
        <ele>26.023</ele>
        <time>2018-12-29T00:17:39Z</time>
      </trkpt>
      <trkpt lat="36.601500" lon="-117.152190">
        <ele>24.522</ele>
        <time>2018-12-29T00:17:59Z</time>
      </trkpt>
      <trkpt lat="36.601840" lon="-117.151760">
        <ele>22.837</ele>
        <time>2018-12-29T00:18:19Z</time>
      </trkpt>
      <trkpt lat="36.602230" lon="-117.151280">
        <ele>20.996</ele>
        <time>2018-12-29T00:18:39Z</time>
      </trkpt>
      <trkpt lat="36.602820" lon="-117.150520">
        <ele>18.131</ele>
        <time>2018-12-29T00:18:59Z</time>
      </trkpt>
      <trkpt lat="36.603510" lon="-117.149630">
        <ele>14.724</ele>
        <time>2018-12-29T00:19:19Z</time>
      </trkpt>
      <trkpt lat="36.603980" lon="-117.149040">
        <ele>12.608</ele>
        <time>2018-12-29T00:19:39Z</time>
      </trkpt>
      <trkpt lat="36.604070" lon="-117.148940">
        <ele>12.332</ele>
        <time>2018-12-29T00:19:59Z</time>
      </trkpt>
      <trkpt lat="36.604220" lon="-117.148780">
        <ele>11.830</ele>
        <time>2018-12-29T00:20:19Z</time>
      </trkpt>
      <trkpt lat="36.604340" lon="-117.148660">
        <ele>11.395</ele>
        <time>2018-12-29T00:20:39Z</time>
      </trkpt>
      <trkpt lat="36.604410" lon="-117.148590">
        <ele>10.915</ele>
        <time>2018-12-29T00:20:59Z</time>
      </trkpt>
      <trkpt lat="36.604460" lon="-117.148550">
        <ele>10.779</ele>
        <time>2018-12-29T00:21:19Z</time>
      </trkpt>
      <trkpt lat="36.604590" lon="-117.148440">
        <ele>10.073</ele>
        <time>2018-12-29T00:21:39Z</time>
      </trkpt>
      <trkpt lat="36.604770" lon="-117.148300">
        <ele>9.282</ele>
        <time>2018-12-29T00:21:59Z</time>
      </trkpt>
      <trkpt lat="36.604990" lon="-117.148150">
        <ele>8.197</ele>
        <time>2018-12-29T00:22:19Z</time>
      </trkpt>
      <trkpt lat="36.605220" lon="-117.147990">
        <ele>7.069</ele>
        <time>2018-12-29T00:22:39Z</time>
      </trkpt>
      <trkpt lat="36.605550" lon="-117.147770">
        <ele>5.504</ele>
        <time>2018-12-29T00:22:59Z</time>
      </trkpt>
      <trkpt lat="36.605730" lon="-117.147640">
        <ele>4.624</ele>
        <time>2018-12-29T00:23:19Z</time>
      </trkpt>
      <trkpt lat="36.605810" lon="-117.147560">
        <ele>4.208</ele>
        <time>2018-12-29T00:23:39Z</time>
      </trkpt>
      <trkpt lat="36.605940" lon="-117.147430">
        <ele>3.649</ele>
        <time>2018-12-29T00:23:59Z</time>
      </trkpt>
      <trkpt lat="36.606070" lon="-117.147310">
        <ele>2.947</ele>
        <time>2018-12-29T00:24:19Z</time>
      </trkpt>
      <trkpt lat="36.606220" lon="-117.147140">
        <ele>2.152</ele>
        <time>2018-12-29T00:24:39Z</time>
      </trkpt>
      <trkpt lat="36.606310" lon="-117.147020">
        <ele>1.692</ele>
        <time>2018-12-29T00:24:59Z</time>
      </trkpt>
      <trkpt lat="36.606430" lon="-117.146870">
        <ele>0.636</ele>
        <time>2018-12-29T00:25:19Z</time>
      </trkpt>
      <trkpt lat="36.606620" lon="-117.146640">
        <ele>-0.420</ele>
        <time>2018-12-29T00:25:39Z</time>
      </trkpt>
      <trkpt lat="36.606980" lon="-117.146160">
        <ele>-1.279</ele>
        <time>2018-12-29T00:25:59Z</time>
      </trkpt>
      <trkpt lat="36.607170" lon="-117.145870">
        <ele>-1.814</ele>
        <time>2018-12-29T00:26:19Z</time>
      </trkpt>
      <trkpt lat="36.607280" lon="-117.145670">
        <ele>-2.179</ele>
        <time>2018-12-29T00:26:39Z</time>
      </trkpt>
      <trkpt lat="36.607340" lon="-117.145570">
        <ele>-2.405</ele>
        <time>2018-12-29T00:26:59Z</time>
      </trkpt>
      <trkpt lat="36.607390" lon="-117.145470">
        <ele>-2.625</ele>
        <time>2018-12-29T00:27:19Z</time>
      </trkpt>
      <trkpt lat="36.607440" lon="-117.145350">
        <ele>-2.808</ele>
        <time>2018-12-29T00:27:39Z</time>
      </trkpt>
      <trkpt lat="36.607520" lon="-117.145180">
        <ele>-3.010</ele>
        <time>2018-12-29T00:27:59Z</time>
      </trkpt>
      <trkpt lat="36.607590" lon="-117.144970">
        <ele>-3.268</ele>
        <time>2018-12-29T00:28:19Z</time>
      </trkpt>
      <trkpt lat="36.607710" lon="-117.144600">
        <ele>-3.543</ele>
        <time>2018-12-29T00:28:39Z</time>
      </trkpt>
      <trkpt lat="36.607770" lon="-117.144380">
        <ele>-3.713</ele>
        <time>2018-12-29T00:28:59Z</time>
      </trkpt>
      <trkpt lat="36.607800" lon="-117.144230">
        <ele>-3.957</ele>
        <time>2018-12-29T00:29:19Z</time>
      </trkpt>
      <trkpt lat="36.607840" lon="-117.144050">
        <ele>-4.061</ele>
        <time>2018-12-29T00:29:39Z</time>
      </trkpt>
      <trkpt lat="36.607900" lon="-117.143710">
        <ele>-4.390</ele>
        <time>2018-12-29T00:29:59Z</time>
      </trkpt>
      <trkpt lat="36.607930" lon="-117.143450">
        <ele>-4.615</ele>
        <time>2018-12-29T00:30:19Z</time>
      </trkpt>
      <trkpt lat="36.607940" lon="-117.143190">
        <ele>-4.828</ele>
        <time>2018-12-29T00:30:39Z</time>
      </trkpt>
      <trkpt lat="36.607940" lon="-117.142970">
        <ele>-5.189</ele>
        <time>2018-12-29T00:30:59Z</time>
      </trkpt>
      <trkpt lat="36.607940" lon="-117.142820">
        <ele>-5.217</ele>
        <time>2018-12-29T00:31:19Z</time>
      </trkpt>
      <trkpt lat="36.607930" lon="-117.142600">
        <ele>-5.408</ele>
        <time>2018-12-29T00:31:39Z</time>
      </trkpt>
      <trkpt lat="36.607910" lon="-117.142360">
        <ele>-5.595</ele>
        <time>2018-12-29T00:31:59Z</time>
      </trkpt>
      <trkpt lat="36.607870" lon="-117.142000">
        <ele>-5.553</ele>
        <time>2018-12-29T00:32:19Z</time>
      </trkpt>
      <trkpt lat="36.607820" lon="-117.141600">
        <ele>-5.528</ele>
        <time>2018-12-29T00:32:39Z</time>
      </trkpt>
      <trkpt lat="36.607550" lon="-117.139560">
        <ele>-5.478</ele>
        <time>2018-12-29T00:32:59Z</time>
      </trkpt>
      <trkpt lat="36.607260" lon="-117.137540">
        <ele>-5.462</ele>
        <time>2018-12-29T00:33:19Z</time>
      </trkpt>
      <trkpt lat="36.607180" lon="-117.137010">
        <ele>-5.556</ele>
        <time>2018-12-29T00:33:39Z</time>
      </trkpt>
      <trkpt lat="36.607130" lon="-117.136710">
        <ele>-5.545</ele>
        <time>2018-12-29T00:33:59Z</time>
      </trkpt>
      <trkpt lat="36.607050" lon="-117.136360">
        <ele>-5.520</ele>
        <time>2018-12-29T00:34:19Z</time>
      </trkpt>
      <trkpt lat="36.606940" lon="-117.135960">
        <ele>-5.546</ele>
        <time>2018-12-29T00:34:39Z</time>
      </trkpt>
      <trkpt lat="36.606870" lon="-117.135710">
        <ele>-5.588</ele>
        <time>2018-12-29T00:34:59Z</time>
      </trkpt>
      <trkpt lat="36.606780" lon="-117.135410">
        <ele>-5.516</ele>
        <time>2018-12-29T00:35:19Z</time>
      </trkpt>
      <trkpt lat="36.606570" lon="-117.134850">
        <ele>-5.408</ele>
        <time>2018-12-29T00:35:39Z</time>
      </trkpt>
      <trkpt lat="36.606350" lon="-117.134320">
        <ele>-5.497</ele>
        <time>2018-12-29T00:35:59Z</time>
      </trkpt>
      <trkpt lat="36.606000" lon="-117.133560">
        <ele>-5.585</ele>
        <time>2018-12-29T00:36:19Z</time>
      </trkpt>
      <trkpt lat="36.605720" lon="-117.132960">
        <ele>-5.440</ele>
        <time>2018-12-29T00:36:39Z</time>
      </trkpt>
      <trkpt lat="36.605470" lon="-117.132390">
        <ele>-4.180</ele>
        <time>2018-12-29T00:36:59Z</time>
      </trkpt>
      <trkpt lat="36.605000" lon="-117.131370">
        <ele>-3.584</ele>
        <time>2018-12-29T00:37:19Z</time>
      </trkpt>
      <trkpt lat="36.604270" lon="-117.129760">
        <ele>-1.828</ele>
        <time>2018-12-29T00:37:39Z</time>
      </trkpt>
      <trkpt lat="36.604130" lon="-117.129450">
        <ele>-1.387</ele>
        <time>2018-12-29T00:37:59Z</time>
      </trkpt>
      <trkpt lat="36.603920" lon="-117.128950">
        <ele>-1.152</ele>
        <time>2018-12-29T00:38:19Z</time>
      </trkpt>
      <trkpt lat="36.603790" lon="-117.128590">
        <ele>-0.539</ele>
        <time>2018-12-29T00:38:39Z</time>
      </trkpt>
      <trkpt lat="36.603690" lon="-117.128230">
        <ele>-0.601</ele>
        <time>2018-12-29T00:38:59Z</time>
      </trkpt>
      <trkpt lat="36.603650" lon="-117.128040">
        <ele>-0.921</ele>
        <time>2018-12-29T00:39:19Z</time>
      </trkpt>
      <trkpt lat="36.603630" lon="-117.127920">
        <ele>-1.008</ele>
        <time>2018-12-29T00:39:39Z</time>
      </trkpt>
      <trkpt lat="36.603590" lon="-117.127720">
        <ele>-0.936</ele>
        <time>2018-12-29T00:39:59Z</time>
      </trkpt>
      <trkpt lat="36.603580" lon="-117.127590">
        <ele>-1.024</ele>
        <time>2018-12-29T00:40:19Z</time>
      </trkpt>
      <trkpt lat="36.603560" lon="-117.127400">
        <ele>-1.079</ele>
        <time>2018-12-29T00:40:39Z</time>
      </trkpt>
      <trkpt lat="36.603540" lon="-117.127130">
        <ele>-0.599</ele>
        <time>2018-12-29T00:40:59Z</time>
      </trkpt>
      <trkpt lat="36.603530" lon="-117.126960">
        <ele>-0.483</ele>
        <time>2018-12-29T00:41:19Z</time>
      </trkpt>
      <trkpt lat="36.603530" lon="-117.126790">
        <ele>-0.477</ele>
        <time>2018-12-29T00:41:39Z</time>
      </trkpt>
      <trkpt lat="36.603540" lon="-117.126630">
        <ele>-0.876</ele>
        <time>2018-12-29T00:41:59Z</time>
      </trkpt>
      <trkpt lat="36.603540" lon="-117.126450">
        <ele>-0.981</ele>
        <time>2018-12-29T00:42:19Z</time>
      </trkpt>
      <trkpt lat="36.603560" lon="-117.126170">
        <ele>-0.855</ele>
        <time>2018-12-29T00:42:39Z</time>
      </trkpt>
      <trkpt lat="36.603580" lon="-117.126040">
        <ele>-0.807</ele>
        <time>2018-12-29T00:42:59Z</time>
      </trkpt>
      <trkpt lat="36.603610" lon="-117.125890">
        <ele>-0.717</ele>
        <time>2018-12-29T00:43:19Z</time>
      </trkpt>
      <trkpt lat="36.603670" lon="-117.125580">
        <ele>-0.508</ele>
        <time>2018-12-29T00:43:39Z</time>
      </trkpt>
      <trkpt lat="36.603930" lon="-117.124490">
        <ele>-0.948</ele>
        <time>2018-12-29T00:43:59Z</time>
      </trkpt>
      <trkpt lat="36.604120" lon="-117.123630">
        <ele>-1.896</ele>
        <time>2018-12-29T00:44:19Z</time>
      </trkpt>
      <trkpt lat="36.604340" lon="-117.122670">
        <ele>-1.971</ele>
        <time>2018-12-29T00:44:39Z</time>
      </trkpt>
      <trkpt lat="36.604620" lon="-117.121470">
        <ele>-2.211</ele>
        <time>2018-12-29T00:44:59Z</time>
      </trkpt>
      <trkpt lat="36.604890" lon="-117.120340">
        <ele>-2.775</ele>
        <time>2018-12-29T00:45:19Z</time>
      </trkpt>
      <trkpt lat="36.605200" lon="-117.118990">
        <ele>-2.869</ele>
        <time>2018-12-29T00:45:39Z</time>
      </trkpt>
      <trkpt lat="36.605290" lon="-117.118600">
        <ele>-2.938</ele>
        <time>2018-12-29T00:45:59Z</time>
      </trkpt>
      <trkpt lat="36.605370" lon="-117.118190">
        <ele>-2.833</ele>
        <time>2018-12-29T00:46:19Z</time>
      </trkpt>
      <trkpt lat="36.605400" lon="-117.117990">
        <ele>-2.718</ele>
        <time>2018-12-29T00:46:39Z</time>
      </trkpt>
      <trkpt lat="36.605430" lon="-117.117780">
        <ele>-2.798</ele>
        <time>2018-12-29T00:46:59Z</time>
      </trkpt>
      <trkpt lat="36.605460" lon="-117.117610">
        <ele>-2.717</ele>
        <time>2018-12-29T00:47:19Z</time>
      </trkpt>
      <trkpt lat="36.605480" lon="-117.117450">
        <ele>-2.608</ele>
        <time>2018-12-29T00:47:39Z</time>
      </trkpt>
      <trkpt lat="36.605500" lon="-117.117240">
        <ele>-2.684</ele>
        <time>2018-12-29T00:47:59Z</time>
      </trkpt>
      <trkpt lat="36.605510" lon="-117.117090">
        <ele>-2.622</ele>
        <time>2018-12-29T00:48:19Z</time>
      </trkpt>
      <trkpt lat="36.605540" lon="-117.116710">
        <ele>-2.687</ele>
        <time>2018-12-29T00:48:39Z</time>
      </trkpt>
      <trkpt lat="36.605550" lon="-117.116310">
        <ele>-2.567</ele>
        <time>2018-12-29T00:48:59Z</time>
      </trkpt>
      <trkpt lat="36.605550" lon="-117.115760">
        <ele>-2.131</ele>
        <time>2018-12-29T00:49:19Z</time>
      </trkpt>
      <trkpt lat="36.605540" lon="-117.115200">
        <ele>-2.095</ele>
        <time>2018-12-29T00:49:39Z</time>
      </trkpt>
      <trkpt lat="36.605520" lon="-117.114210">
        <ele>-1.494</ele>
        <time>2018-12-29T00:49:59Z</time>
      </trkpt>
      <trkpt lat="36.605520" lon="-117.113870">
        <ele>-1.389</ele>
        <time>2018-12-29T00:50:19Z</time>
      </trkpt>
      <trkpt lat="36.605510" lon="-117.113760">
        <ele>-1.221</ele>
        <time>2018-12-29T00:50:39Z</time>
      </trkpt>
      <trkpt lat="36.605513" lon="-117.113762">
        <ele>-1.241</ele>
        <time>2018-12-29T00:50:59Z</time>
      </trkpt>
      <trkpt lat="36.605540" lon="-117.113760">
        <ele>-1.405</ele>
        <time>2018-12-29T00:51:19Z</time>
      </trkpt>
      <trkpt lat="36.605700" lon="-117.113770">
        <ele>-2.108</ele>
        <time>2018-12-29T00:51:39Z</time>
      </trkpt>
      <trkpt lat="36.605830" lon="-117.113790">
        <ele>-2.625</ele>
        <time>2018-12-29T00:51:59Z</time>
      </trkpt>
      <trkpt lat="36.605920" lon="-117.113810">
        <ele>-3.013</ele>
        <time>2018-12-29T00:52:19Z</time>
      </trkpt>
      <trkpt lat="36.605990" lon="-117.113850">
        <ele>-3.318</ele>
        <time>2018-12-29T00:52:39Z</time>
      </trkpt>
      <trkpt lat="36.606040" lon="-117.113890">
        <ele>-3.668</ele>
        <time>2018-12-29T00:52:59Z</time>
      </trkpt>
      <trkpt lat="36.606110" lon="-117.113960">
        <ele>-3.962</ele>
        <time>2018-12-29T00:53:19Z</time>
      </trkpt>
      <trkpt lat="36.606150" lon="-117.114060">
        <ele>-4.156</ele>
        <time>2018-12-29T00:53:39Z</time>
      </trkpt>
      <trkpt lat="36.606180" lon="-117.114160">
        <ele>-4.355</ele>
        <time>2018-12-29T00:53:59Z</time>
      </trkpt>
      <trkpt lat="36.606200" lon="-117.114310">
        <ele>-4.460</ele>
        <time>2018-12-29T00:54:19Z</time>
      </trkpt>
      <trkpt lat="36.606201" lon="-117.114311">
        <ele>-4.418</ele>
        <time>2018-12-29T00:54:39Z</time>
      </trkpt>
      <trkpt lat="36.606201" lon="-117.114311">
        <ele>-4.423</ele>
        <time>2018-12-27T18:30:02Z</time>
      </trkpt>
      <trkpt lat="36.606180" lon="-117.114160">
        <ele>-4.383</ele>
        <time>2018-12-27T18:30:22Z</time>
      </trkpt>
      <trkpt lat="36.606150" lon="-117.114060">
        <ele>-4.111</ele>
        <time>2018-12-27T18:30:42Z</time>
      </trkpt>
      <trkpt lat="36.606110" lon="-117.113960">
        <ele>-3.908</ele>
        <time>2018-12-27T18:31:02Z</time>
      </trkpt>
      <trkpt lat="36.606040" lon="-117.113890">
        <ele>-3.635</ele>
        <time>2018-12-27T18:31:22Z</time>
      </trkpt>
      <trkpt lat="36.605990" lon="-117.113850">
        <ele>-3.383</ele>
        <time>2018-12-27T18:31:42Z</time>
      </trkpt>
      <trkpt lat="36.605920" lon="-117.113810">
        <ele>-3.048</ele>
        <time>2018-12-27T18:32:02Z</time>
      </trkpt>
      <trkpt lat="36.605830" lon="-117.113790">
        <ele>-2.679</ele>
        <time>2018-12-27T18:32:22Z</time>
      </trkpt>
      <trkpt lat="36.605700" lon="-117.113770">
        <ele>-2.143</ele>
        <time>2018-12-27T18:32:42Z</time>
      </trkpt>
      <trkpt lat="36.605540" lon="-117.113760">
        <ele>-1.432</ele>
        <time>2018-12-27T18:33:02Z</time>
      </trkpt>
      <trkpt lat="36.605510" lon="-117.113760">
        <ele>-1.291</ele>
        <time>2018-12-27T18:33:22Z</time>
      </trkpt>
      <trkpt lat="36.605513" lon="-117.113762">
        <ele>-1.221</ele>
        <time>2018-12-27T18:33:42Z</time>
      </trkpt>
      <trkpt lat="36.605500" lon="-117.112850">
        <ele>-0.797</ele>
        <time>2018-12-27T18:34:02Z</time>
      </trkpt>
      <trkpt lat="36.605490" lon="-117.112590">
        <ele>-0.523</ele>
        <time>2018-12-27T18:34:22Z</time>
      </trkpt>
      <trkpt lat="36.605470" lon="-117.112260">
        <ele>-0.525</ele>
        <time>2018-12-27T18:34:42Z</time>
      </trkpt>
      <trkpt lat="36.605460" lon="-117.112020">
        <ele>-0.708</ele>
        <time>2018-12-27T18:35:02Z</time>
      </trkpt>
      <trkpt lat="36.605440" lon="-117.111720">
        <ele>-0.752</ele>
        <time>2018-12-27T18:35:22Z</time>
      </trkpt>
      <trkpt lat="36.605410" lon="-117.111330">
        <ele>-0.390</ele>
        <time>2018-12-27T18:35:42Z</time>
      </trkpt>
      <trkpt lat="36.605370" lon="-117.110960">
        <ele>-0.215</ele>
        <time>2018-12-27T18:36:02Z</time>
      </trkpt>
      <trkpt lat="36.605340" lon="-117.110650">
        <ele>-0.156</ele>
        <time>2018-12-27T18:36:22Z</time>
      </trkpt>
      <trkpt lat="36.605300" lon="-117.110390">
        <ele>-0.180</ele>
        <time>2018-12-27T18:36:42Z</time>
      </trkpt>
      <trkpt lat="36.605220" lon="-117.109820">
        <ele>-0.759</ele>
        <time>2018-12-27T18:37:02Z</time>
      </trkpt>
      <trkpt lat="36.605170" lon="-117.109490">
        <ele>-0.748</ele>
        <time>2018-12-27T18:37:22Z</time>
      </trkpt>
      <trkpt lat="36.605090" lon="-117.109040">
        <ele>0.028</ele>
        <time>2018-12-27T18:37:42Z</time>
      </trkpt>
      <trkpt lat="36.604900" lon="-117.108020">
        <ele>-0.447</ele>
        <time>2018-12-27T18:38:02Z</time>
      </trkpt>
      <trkpt lat="36.604780" lon="-117.107420">
        <ele>-0.129</ele>
        <time>2018-12-27T18:38:22Z</time>
      </trkpt>
      <trkpt lat="36.604640" lon="-117.106740">
        <ele>-1.021</ele>
        <time>2018-12-27T18:38:42Z</time>
      </trkpt>
      <trkpt lat="36.604520" lon="-117.106240">
        <ele>-1.508</ele>
        <time>2018-12-27T18:39:02Z</time>
      </trkpt>
      <trkpt lat="36.604410" lon="-117.105800">
        <ele>-1.947</ele>
        <time>2018-12-27T18:39:22Z</time>
      </trkpt>
      <trkpt lat="36.604160" lon="-117.104940">
        <ele>-2.695</ele>
        <time>2018-12-27T18:39:42Z</time>
      </trkpt>
      <trkpt lat="36.604090" lon="-117.104710">
        <ele>-2.670</ele>
        <time>2018-12-27T18:40:02Z</time>
      </trkpt>
      <trkpt lat="36.604020" lon="-117.104500">
        <ele>-2.791</ele>
        <time>2018-12-27T18:40:22Z</time>
      </trkpt>
      <trkpt lat="36.603910" lon="-117.104210">
        <ele>-2.855</ele>
        <time>2018-12-27T18:40:42Z</time>
      </trkpt>
      <trkpt lat="36.603750" lon="-117.103750">
        <ele>-3.024</ele>
        <time>2018-12-27T18:41:02Z</time>
      </trkpt>
      <trkpt lat="36.603560" lon="-117.103280">
        <ele>-3.363</ele>
        <time>2018-12-27T18:41:22Z</time>
      </trkpt>
      <trkpt lat="36.603310" lon="-117.102690">
        <ele>-3.833</ele>
        <time>2018-12-27T18:41:42Z</time>
      </trkpt>
      <trkpt lat="36.603170" lon="-117.102390">
        <ele>-4.065</ele>
        <time>2018-12-27T18:42:02Z</time>
      </trkpt>
      <trkpt lat="36.602900" lon="-117.101800">
        <ele>-4.568</ele>
        <time>2018-12-27T18:42:22Z</time>
      </trkpt>
      <trkpt lat="36.602710" lon="-117.101400">
        <ele>-4.914</ele>
        <time>2018-12-27T18:42:42Z</time>
      </trkpt>
      <trkpt lat="36.601990" lon="-117.099850">
        <ele>-5.308</ele>
        <time>2018-12-27T18:43:02Z</time>
      </trkpt>
      <trkpt lat="36.601860" lon="-117.099590">
        <ele>-5.279</ele>
        <time>2018-12-27T18:43:22Z</time>
      </trkpt>
      <trkpt lat="36.601720" lon="-117.099290">
        <ele>-5.057</ele>
        <time>2018-12-27T18:43:42Z</time>
      </trkpt>
      <trkpt lat="36.601600" lon="-117.099010">
        <ele>-4.972</ele>
        <time>2018-12-27T18:44:02Z</time>
      </trkpt>
      <trkpt lat="36.601440" lon="-117.098550">
        <ele>-4.743</ele>
        <time>2018-12-27T18:44:22Z</time>
      </trkpt>
      <trkpt lat="36.601360" lon="-117.098260">
        <ele>-4.677</ele>
        <time>2018-12-27T18:44:42Z</time>
      </trkpt>
      <trkpt lat="36.601310" lon="-117.098060">
        <ele>-4.686</ele>
        <time>2018-12-27T18:45:02Z</time>
      </trkpt>
      <trkpt lat="36.601270" lon="-117.097850">
        <ele>-4.655</ele>
        <time>2018-12-27T18:45:22Z</time>
      </trkpt>
      <trkpt lat="36.601210" lon="-117.097480">
        <ele>-4.755</ele>
        <time>2018-12-27T18:45:42Z</time>
      </trkpt>
      <trkpt lat="36.601190" lon="-117.097320">
        <ele>-4.744</ele>
        <time>2018-12-27T18:46:02Z</time>
      </trkpt>
      <trkpt lat="36.601180" lon="-117.097030">
        <ele>-5.005</ele>
        <time>2018-12-27T18:46:22Z</time>
      </trkpt>
      <trkpt lat="36.601160" lon="-117.096840">
        <ele>-5.115</ele>
        <time>2018-12-27T18:46:42Z</time>
      </trkpt>
      <trkpt lat="36.601170" lon="-117.096570">
        <ele>-5.608</ele>
        <time>2018-12-27T18:47:02Z</time>
      </trkpt>
      <trkpt lat="36.601170" lon="-117.096390">
        <ele>-5.867</ele>
        <time>2018-12-27T18:47:22Z</time>
      </trkpt>
      <trkpt lat="36.601170" lon="-117.096290">
        <ele>-5.925</ele>
        <time>2018-12-27T18:47:42Z</time>
      </trkpt>
      <trkpt lat="36.601190" lon="-117.096150">
        <ele>-6.240</ele>
        <time>2018-12-27T18:48:02Z</time>
      </trkpt>
      <trkpt lat="36.601210" lon="-117.095960">
        <ele>-6.511</ele>
        <time>2018-12-27T18:48:22Z</time>
      </trkpt>
      <trkpt lat="36.601250" lon="-117.095680">
        <ele>-6.885</ele>
        <time>2018-12-27T18:48:42Z</time>
      </trkpt>
      <trkpt lat="36.601310" lon="-117.095380">
        <ele>-7.234</ele>
        <time>2018-12-27T18:49:02Z</time>
      </trkpt>
      <trkpt lat="36.601380" lon="-117.095120">
        <ele>-7.433</ele>
        <time>2018-12-27T18:49:22Z</time>
      </trkpt>
      <trkpt lat="36.601440" lon="-117.094930">
        <ele>-7.613</ele>
        <time>2018-12-27T18:49:42Z</time>
      </trkpt>
      <trkpt lat="36.601550" lon="-117.094650">
        <ele>-8.261</ele>
        <time>2018-12-27T18:50:02Z</time>
      </trkpt>
      <trkpt lat="36.601700" lon="-117.094290">
        <ele>-9.021</ele>
        <time>2018-12-27T18:50:22Z</time>
      </trkpt>
      <trkpt lat="36.601820" lon="-117.094050">
        <ele>-9.513</ele>
        <time>2018-12-27T18:50:42Z</time>
      </trkpt>
      <trkpt lat="36.602040" lon="-117.093680">
        <ele>-10.208</ele>
        <time>2018-12-27T18:51:02Z</time>
      </trkpt>
      <trkpt lat="36.602160" lon="-117.093510">
        <ele>-10.159</ele>
        <time>2018-12-27T18:51:22Z</time>
      </trkpt>
      <trkpt lat="36.602290" lon="-117.093330">
        <ele>-10.167</ele>
        <time>2018-12-27T18:51:42Z</time>
      </trkpt>
      <trkpt lat="36.603350" lon="-117.092020">
        <ele>-10.472</ele>
        <time>2018-12-27T18:52:02Z</time>
      </trkpt>
      <trkpt lat="36.603840" lon="-117.091400">
        <ele>-10.643</ele>
        <time>2018-12-27T18:52:22Z</time>
      </trkpt>
      <trkpt lat="36.604200" lon="-117.090960">
        <ele>-10.557</ele>
        <time>2018-12-27T18:52:42Z</time>
      </trkpt>
      <trkpt lat="36.604570" lon="-117.090510">
        <ele>-10.476</ele>
        <time>2018-12-27T18:53:02Z</time>
      </trkpt>
      <trkpt lat="36.605100" lon="-117.089850">
        <ele>-10.585</ele>
        <time>2018-12-27T18:53:22Z</time>
      </trkpt>
      <trkpt lat="36.605890" lon="-117.088880">
        <ele>-11.075</ele>
        <time>2018-12-27T18:53:42Z</time>
      </trkpt>
      <trkpt lat="36.606590" lon="-117.088010">
        <ele>-11.981</ele>
        <time>2018-12-27T18:54:02Z</time>
      </trkpt>
      <trkpt lat="36.606880" lon="-117.087650">
        <ele>-12.261</ele>
        <time>2018-12-27T18:54:22Z</time>
      </trkpt>
      <trkpt lat="36.607420" lon="-117.086990">
        <ele>-13.217</ele>
        <time>2018-12-27T18:54:42Z</time>
      </trkpt>
      <trkpt lat="36.608060" lon="-117.086190">
        <ele>-14.408</ele>
        <time>2018-12-27T18:55:02Z</time>
      </trkpt>
      <trkpt lat="36.608770" lon="-117.085320">
        <ele>-15.561</ele>
        <time>2018-12-27T18:55:22Z</time>
      </trkpt>
      <trkpt lat="36.610050" lon="-117.083740">
        <ele>-15.479</ele>
        <time>2018-12-27T18:55:42Z</time>
      </trkpt>
      <trkpt lat="36.610330" lon="-117.083390">
        <ele>-15.154</ele>
        <time>2018-12-27T18:56:02Z</time>
      </trkpt>
      <trkpt lat="36.610490" lon="-117.083200">
        <ele>-14.985</ele>
        <time>2018-12-27T18:56:22Z</time>
      </trkpt>
      <trkpt lat="36.610690" lon="-117.082950">
        <ele>-14.559</ele>
        <time>2018-12-27T18:56:42Z</time>
      </trkpt>
      <trkpt lat="36.610830" lon="-117.082770">
        <ele>-14.388</ele>
        <time>2018-12-27T18:57:02Z</time>
      </trkpt>
      <trkpt lat="36.610890" lon="-117.082700">
        <ele>-14.117</ele>
        <time>2018-12-27T18:57:22Z</time>
      </trkpt>
      <trkpt lat="36.611080" lon="-117.082450">
        <ele>-13.777</ele>
        <time>2018-12-27T18:57:42Z</time>
      </trkpt>
      <trkpt lat="36.611150" lon="-117.082340">
        <ele>-13.583</ele>
        <time>2018-12-27T18:58:02Z</time>
      </trkpt>
      <trkpt lat="36.611300" lon="-117.082100">
        <ele>-13.125</ele>
        <time>2018-12-27T18:58:22Z</time>
      </trkpt>
      <trkpt lat="36.611410" lon="-117.081900">
        <ele>-12.817</ele>
        <time>2018-12-27T18:58:42Z</time>
      </trkpt>
      <trkpt lat="36.611470" lon="-117.081760">
        <ele>-12.608</ele>
        <time>2018-12-27T18:59:02Z</time>
      </trkpt>
      <trkpt lat="36.611530" lon="-117.081630">
        <ele>-12.541</ele>
        <time>2018-12-27T18:59:22Z</time>
      </trkpt>
      <trkpt lat="36.611590" lon="-117.081470">
        <ele>-12.319</ele>
        <time>2018-12-27T18:59:42Z</time>
      </trkpt>
      <trkpt lat="36.611650" lon="-117.081340">
        <ele>-12.234</ele>
        <time>2018-12-27T19:00:02Z</time>
      </trkpt>
      <trkpt lat="36.611690" lon="-117.081200">
        <ele>-12.165</ele>
        <time>2018-12-27T19:00:22Z</time>
      </trkpt>
      <trkpt lat="36.611740" lon="-117.081060">
        <ele>-12.099</ele>
        <time>2018-12-27T19:00:42Z</time>
      </trkpt>
      <trkpt lat="36.611790" lon="-117.080900">
        <ele>-11.918</ele>
        <time>2018-12-27T19:01:02Z</time>
      </trkpt>
      <trkpt lat="36.611820" lon="-117.080770">
        <ele>-11.977</ele>
        <time>2018-12-27T19:01:22Z</time>
      </trkpt>
      <trkpt lat="36.611850" lon="-117.080620">
        <ele>-11.987</ele>
        <time>2018-12-27T19:01:42Z</time>
      </trkpt>
      <trkpt lat="36.611880" lon="-117.080490">
        <ele>-11.891</ele>
        <time>2018-12-27T19:02:02Z</time>
      </trkpt>
      <trkpt lat="36.612000" lon="-117.079870">
        <ele>-11.981</ele>
        <time>2018-12-27T19:02:22Z</time>
      </trkpt>
      <trkpt lat="36.612020" lon="-117.079770">
        <ele>-11.919</ele>
        <time>2018-12-27T19:02:42Z</time>
      </trkpt>
      <trkpt lat="36.612060" lon="-117.079660">
        <ele>-11.908</ele>
        <time>2018-12-27T19:03:02Z</time>
      </trkpt>
      <trkpt lat="36.612080" lon="-117.079590">
        <ele>-11.962</ele>
        <time>2018-12-27T19:03:22Z</time>
      </trkpt>
      <trkpt lat="36.612100" lon="-117.079530">
        <ele>-11.990</ele>
        <time>2018-12-27T19:03:42Z</time>
      </trkpt>
      <trkpt lat="36.612150" lon="-117.079370">
        <ele>-11.985</ele>
        <time>2018-12-27T19:04:02Z</time>
      </trkpt>
      <trkpt lat="36.612210" lon="-117.079240">
        <ele>-11.846</ele>
        <time>2018-12-27T19:04:22Z</time>
      </trkpt>
      <trkpt lat="36.612260" lon="-117.079120">
        <ele>-11.840</ele>
        <time>2018-12-27T19:04:42Z</time>
      </trkpt>
      <trkpt lat="36.612340" lon="-117.078960">
        <ele>-11.819</ele>
        <time>2018-12-27T19:05:02Z</time>
      </trkpt>
      <trkpt lat="36.612410" lon="-117.078840">
        <ele>-11.818</ele>
        <time>2018-12-27T19:05:22Z</time>
      </trkpt>
      <trkpt lat="36.612470" lon="-117.078750">
        <ele>-11.858</ele>
        <time>2018-12-27T19:05:42Z</time>
      </trkpt>
      <trkpt lat="36.612560" lon="-117.078590">
        <ele>-11.838</ele>
        <time>2018-12-27T19:06:02Z</time>
      </trkpt>
      <trkpt lat="36.612750" lon="-117.078310">
        <ele>-12.070</ele>
        <time>2018-12-27T19:06:22Z</time>
      </trkpt>
      <trkpt lat="36.612850" lon="-117.078180">
        <ele>-12.117</ele>
        <time>2018-12-27T19:06:42Z</time>
      </trkpt>
      <trkpt lat="36.613130" lon="-117.077780">
        <ele>-12.608</ele>
        <time>2018-12-27T19:07:02Z</time>
      </trkpt>
      <trkpt lat="36.613330" lon="-117.077490">
        <ele>-13.026</ele>
        <time>2018-12-27T19:07:22Z</time>
      </trkpt>
      <trkpt lat="36.613950" lon="-117.076640">
        <ele>-14.164</ele>
        <time>2018-12-27T19:07:42Z</time>
      </trkpt>
      <trkpt lat="36.614380" lon="-117.076030">
        <ele>-14.899</ele>
        <time>2018-12-27T19:08:02Z</time>
      </trkpt>
      <trkpt lat="36.614630" lon="-117.075650">
        <ele>-15.250</ele>
        <time>2018-12-27T19:08:22Z</time>
      </trkpt>
      <trkpt lat="36.614770" lon="-117.075420">
        <ele>-15.554</ele>
        <time>2018-12-27T19:08:42Z</time>
      </trkpt>
      <trkpt lat="36.614930" lon="-117.075140">
        <ele>-15.863</ele>
        <time>2018-12-27T19:09:02Z</time>
      </trkpt>
      <trkpt lat="36.615000" lon="-117.075030">
        <ele>-15.912</ele>
        <time>2018-12-27T19:09:22Z</time>
      </trkpt>
      <trkpt lat="36.615070" lon="-117.074890">
        <ele>-16.062</ele>
        <time>2018-12-27T19:09:42Z</time>
      </trkpt>
      <trkpt lat="36.615140" lon="-117.074760">
        <ele>-16.189</ele>
        <time>2018-12-27T19:10:02Z</time>
      </trkpt>
      <trkpt lat="36.615200" lon="-117.074620">
        <ele>-16.206</ele>
        <time>2018-12-27T19:10:22Z</time>
      </trkpt>
      <trkpt lat="36.615390" lon="-117.074200">
        <ele>-16.626</ele>
        <time>2018-12-27T19:10:42Z</time>
      </trkpt>
      <trkpt lat="36.615440" lon="-117.074070">
        <ele>-16.708</ele>
        <time>2018-12-27T19:11:02Z</time>
      </trkpt>
      <trkpt lat="36.615500" lon="-117.073910">
        <ele>-16.871</ele>
        <time>2018-12-27T19:11:22Z</time>
      </trkpt>
      <trkpt lat="36.615680" lon="-117.073460">
        <ele>-17.189</ele>
        <time>2018-12-27T19:11:42Z</time>
      </trkpt>
      <trkpt lat="36.615880" lon="-117.072920">
        <ele>-17.554</ele>
        <time>2018-12-27T19:12:02Z</time>
      </trkpt>
      <trkpt lat="36.616160" lon="-117.072140">
        <ele>-18.135</ele>
        <time>2018-12-27T19:12:22Z</time>
      </trkpt>
      <trkpt lat="36.616580" lon="-117.070990">
        <ele>-19.119</ele>
        <time>2018-12-27T19:12:42Z</time>
      </trkpt>
      <trkpt lat="36.616780" lon="-117.070440">
        <ele>-19.528</ele>
        <time>2018-12-27T19:13:02Z</time>
      </trkpt>
      <trkpt lat="36.617130" lon="-117.069500">
        <ele>-20.057</ele>
        <time>2018-12-27T19:13:22Z</time>
      </trkpt>
      <trkpt lat="36.617200" lon="-117.069300">
        <ele>-20.157</ele>
        <time>2018-12-27T19:13:42Z</time>
      </trkpt>
      <trkpt lat="36.617290" lon="-117.069070">
        <ele>-20.329</ele>
        <time>2018-12-27T19:14:02Z</time>
      </trkpt>
      <trkpt lat="36.617370" lon="-117.068870">
        <ele>-20.400</ele>
        <time>2018-12-27T19:14:22Z</time>
      </trkpt>
      <trkpt lat="36.617540" lon="-117.068490">
        <ele>-20.620</ele>
        <time>2018-12-27T19:14:42Z</time>
      </trkpt>
      <trkpt lat="36.617670" lon="-117.068220">
        <ele>-20.908</ele>
        <time>2018-12-27T19:15:02Z</time>
      </trkpt>
      <trkpt lat="36.617900" lon="-117.067760">
        <ele>-21.235</ele>
        <time>2018-12-27T19:15:22Z</time>
      </trkpt>
      <trkpt lat="36.618020" lon="-117.067580">
        <ele>-21.433</ele>
        <time>2018-12-27T19:15:42Z</time>
      </trkpt>
      <trkpt lat="36.618170" lon="-117.067340">
        <ele>-21.528</ele>
        <time>2018-12-27T19:16:02Z</time>
      </trkpt>
      <trkpt lat="36.618260" lon="-117.067200">
        <ele>-21.679</ele>
        <time>2018-12-27T19:16:22Z</time>
      </trkpt>
      <trkpt lat="36.618670" lon="-117.066580">
        <ele>-22.043</ele>
        <time>2018-12-27T19:16:42Z</time>
      </trkpt>
      <trkpt lat="36.619230" lon="-117.065750">
        <ele>-22.642</ele>
        <time>2018-12-27T19:17:02Z</time>
      </trkpt>
      <trkpt lat="36.620010" lon="-117.064580">
        <ele>-23.231</ele>
        <time>2018-12-27T19:17:22Z</time>
      </trkpt>
      <trkpt lat="36.620310" lon="-117.064130">
        <ele>-23.571</ele>
        <time>2018-12-27T19:17:42Z</time>
      </trkpt>
      <trkpt lat="36.620710" lon="-117.063520">
        <ele>-23.676</ele>
        <time>2018-12-27T19:18:02Z</time>
      </trkpt>
      <trkpt lat="36.620980" lon="-117.063130">
        <ele>-23.690</ele>
        <time>2018-12-27T19:18:22Z</time>
      </trkpt>
      <trkpt lat="36.621360" lon="-117.062550">
        <ele>-23.919</ele>
        <time>2018-12-27T19:18:42Z</time>
      </trkpt>
      <trkpt lat="36.621780" lon="-117.061930">
        <ele>-24.008</ele>
        <time>2018-12-27T19:19:02Z</time>
      </trkpt>
      <trkpt lat="36.622430" lon="-117.060950">
        <ele>-24.230</ele>
        <time>2018-12-27T19:19:22Z</time>
      </trkpt>
      <trkpt lat="36.623020" lon="-117.060080">
        <ele>-24.388</ele>
        <time>2018-12-27T19:19:42Z</time>
      </trkpt>
      <trkpt lat="36.623820" lon="-117.058870">
        <ele>-24.493</ele>
        <time>2018-12-27T19:20:02Z</time>
      </trkpt>
      <trkpt lat="36.624470" lon="-117.057910">
        <ele>-24.634</ele>
        <time>2018-12-27T19:20:22Z</time>
      </trkpt>
      <trkpt lat="36.625260" lon="-117.056710">
        <ele>-25.228</ele>
        <time>2018-12-27T19:20:42Z</time>
      </trkpt>
      <trkpt lat="36.626360" lon="-117.055070">
        <ele>-26.237</ele>
        <time>2018-12-27T19:21:02Z</time>
      </trkpt>
      <trkpt lat="36.627090" lon="-117.053980">
        <ele>-26.476</ele>
        <time>2018-12-27T19:21:22Z</time>
      </trkpt>
      <trkpt lat="36.627500" lon="-117.053360">
        <ele>-26.496</ele>
        <time>2018-12-27T19:21:42Z</time>
      </trkpt>
      <trkpt lat="36.628140" lon="-117.052410">
        <ele>-26.556</ele>
        <time>2018-12-27T19:22:02Z</time>
      </trkpt>
      <trkpt lat="36.628520" lon="-117.051830">
        <ele>-25.959</ele>
        <time>2018-12-27T19:22:22Z</time>
      </trkpt>
      <trkpt lat="36.629600" lon="-117.050200">
        <ele>-21.714</ele>
        <time>2018-12-27T19:22:42Z</time>
      </trkpt>
      <trkpt lat="36.636350" lon="-117.040080">
        <ele>16.608</ele>
        <time>2018-12-27T19:23:02Z</time>
      </trkpt>
      <trkpt lat="36.637670" lon="-117.038120">
        <ele>25.278</ele>
        <time>2018-12-27T19:23:22Z</time>
      </trkpt>
      <trkpt lat="36.638990" lon="-117.036130">
        <ele>35.026</ele>
        <time>2018-12-27T19:23:42Z</time>
      </trkpt>
      <trkpt lat="36.639140" lon="-117.035910">
        <ele>35.781</ele>
        <time>2018-12-27T19:24:02Z</time>
      </trkpt>
      <trkpt lat="36.639230" lon="-117.035760">
        <ele>36.522</ele>
        <time>2018-12-27T19:24:22Z</time>
      </trkpt>
      <trkpt lat="36.639320" lon="-117.035600">
        <ele>37.236</ele>
        <time>2018-12-27T19:24:42Z</time>
      </trkpt>
      <trkpt lat="36.639450" lon="-117.035330">
        <ele>37.665</ele>
        <time>2018-12-27T19:25:02Z</time>
      </trkpt>
      <trkpt lat="36.639530" lon="-117.035150">
        <ele>38.194</ele>
        <time>2018-12-27T19:25:22Z</time>
      </trkpt>
      <trkpt lat="36.639580" lon="-117.035040">
        <ele>38.514</ele>
        <time>2018-12-27T19:25:42Z</time>
      </trkpt>
      <trkpt lat="36.639670" lon="-117.034770">
        <ele>39.346</ele>
        <time>2018-12-27T19:26:02Z</time>
      </trkpt>
      <trkpt lat="36.639730" lon="-117.034590">
        <ele>39.888</ele>
        <time>2018-12-27T19:26:22Z</time>
      </trkpt>
      <trkpt lat="36.639790" lon="-117.034400">
        <ele>40.216</ele>
        <time>2018-12-27T19:26:42Z</time>
      </trkpt>
      <trkpt lat="36.639820" lon="-117.034290">
        <ele>40.408</ele>
        <time>2018-12-27T19:27:02Z</time>
      </trkpt>
      <trkpt lat="36.639900" lon="-117.033960">
        <ele>40.827</ele>
        <time>2018-12-27T19:27:22Z</time>
      </trkpt>
      <trkpt lat="36.639930" lon="-117.033810">
        <ele>41.085</ele>
        <time>2018-12-27T19:27:42Z</time>
      </trkpt>
      <trkpt lat="36.639980" lon="-117.033490">
        <ele>41.480</ele>
        <time>2018-12-27T19:28:02Z</time>
      </trkpt>
      <trkpt lat="36.640010" lon="-117.033250">
        <ele>41.681</ele>
        <time>2018-12-27T19:28:22Z</time>
      </trkpt>
      <trkpt lat="36.640030" lon="-117.033020">
        <ele>41.675</ele>
        <time>2018-12-27T19:28:42Z</time>
      </trkpt>
      <trkpt lat="36.640040" lon="-117.032820">
        <ele>41.654</ele>
        <time>2018-12-27T19:29:02Z</time>
      </trkpt>
      <trkpt lat="36.640040" lon="-117.032490">
        <ele>41.363</ele>
        <time>2018-12-27T19:29:22Z</time>
      </trkpt>
      <trkpt lat="36.640040" lon="-117.032300">
        <ele>41.193</ele>
        <time>2018-12-27T19:29:42Z</time>
      </trkpt>
      <trkpt lat="36.640030" lon="-117.032180">
        <ele>40.973</ele>
        <time>2018-12-27T19:30:02Z</time>
      </trkpt>
      <trkpt lat="36.640020" lon="-117.032020">
        <ele>40.785</ele>
        <time>2018-12-27T19:30:22Z</time>
      </trkpt>
      <trkpt lat="36.640000" lon="-117.031790">
        <ele>40.413</ele>
        <time>2018-12-27T19:30:42Z</time>
      </trkpt>
      <trkpt lat="36.639960" lon="-117.031520">
        <ele>40.008</ele>
        <time>2018-12-27T19:31:02Z</time>
      </trkpt>
      <trkpt lat="36.639940" lon="-117.031390">
        <ele>40.160</ele>
        <time>2018-12-27T19:31:22Z</time>
      </trkpt>
      <trkpt lat="36.639920" lon="-117.031260">
        <ele>40.358</ele>
        <time>2018-12-27T19:31:42Z</time>
      </trkpt>
      <trkpt lat="36.639870" lon="-117.031020">
        <ele>40.733</ele>
        <time>2018-12-27T19:32:02Z</time>
      </trkpt>
      <trkpt lat="36.639820" lon="-117.030830">
        <ele>41.064</ele>
        <time>2018-12-27T19:32:22Z</time>
      </trkpt>
      <trkpt lat="36.639690" lon="-117.030410">
        <ele>41.938</ele>
        <time>2018-12-27T19:32:42Z</time>
      </trkpt>
      <trkpt lat="36.639520" lon="-117.029970">
        <ele>43.027</ele>
        <time>2018-12-27T19:33:02Z</time>
      </trkpt>
      <trkpt lat="36.639340" lon="-117.029590">
        <ele>43.996</ele>
        <time>2018-12-27T19:33:22Z</time>
      </trkpt>
      <trkpt lat="36.639150" lon="-117.029270">
        <ele>44.676</ele>
        <time>2018-12-27T19:33:42Z</time>
      </trkpt>
      <trkpt lat="36.639010" lon="-117.029060">
        <ele>45.074</ele>
        <time>2018-12-27T19:34:02Z</time>
      </trkpt>
      <trkpt lat="36.638830" lon="-117.028830">
        <ele>45.656</ele>
        <time>2018-12-27T19:34:22Z</time>
      </trkpt>
      <trkpt lat="36.638710" lon="-117.028680">
        <ele>45.921</ele>
        <time>2018-12-27T19:34:42Z</time>
      </trkpt>
      <trkpt lat="36.638550" lon="-117.028490">
        <ele>46.408</ele>
        <time>2018-12-27T19:35:02Z</time>
      </trkpt>
      <trkpt lat="36.638320" lon="-117.028270">
        <ele>46.830</ele>
        <time>2018-12-27T19:35:22Z</time>
      </trkpt>
      <trkpt lat="36.638120" lon="-117.028080">
        <ele>47.048</ele>
        <time>2018-12-27T19:35:42Z</time>
      </trkpt>
      <trkpt lat="36.637760" lon="-117.027760">
        <ele>47.043</ele>
        <time>2018-12-27T19:36:02Z</time>
      </trkpt>
      <trkpt lat="36.637370" lon="-117.027420">
        <ele>47.154</ele>
        <time>2018-12-27T19:36:22Z</time>
      </trkpt>
      <trkpt lat="36.636900" lon="-117.027010">
        <ele>46.918</ele>
        <time>2018-12-27T19:36:42Z</time>
      </trkpt>
      <trkpt lat="36.636570" lon="-117.026720">
        <ele>46.937</ele>
        <time>2018-12-27T19:37:02Z</time>
      </trkpt>
      <trkpt lat="36.636000" lon="-117.026220">
        <ele>46.426</ele>
        <time>2018-12-27T19:37:22Z</time>
      </trkpt>
      <trkpt lat="36.635440" lon="-117.025710">
        <ele>45.876</ele>
        <time>2018-12-27T19:37:42Z</time>
      </trkpt>
      <trkpt lat="36.634980" lon="-117.025280">
        <ele>45.336</ele>
        <time>2018-12-27T19:38:02Z</time>
      </trkpt>
      <trkpt lat="36.634790" lon="-117.025100">
        <ele>45.117</ele>
        <time>2018-12-27T19:38:22Z</time>
      </trkpt>
      <trkpt lat="36.634510" lon="-117.024810">
        <ele>44.918</ele>
        <time>2018-12-27T19:38:42Z</time>
      </trkpt>
      <trkpt lat="36.634180" lon="-117.024460">
        <ele>45.308</ele>
        <time>2018-12-27T19:39:02Z</time>
      </trkpt>
      <trkpt lat="36.634070" lon="-117.024330">
        <ele>45.596</ele>
        <time>2018-12-27T19:39:22Z</time>
      </trkpt>
      <trkpt lat="36.633750" lon="-117.023970">
        <ele>45.724</ele>
        <time>2018-12-27T19:39:42Z</time>
      </trkpt>
      <trkpt lat="36.633610" lon="-117.023790">
        <ele>45.929</ele>
        <time>2018-12-27T19:40:02Z</time>
      </trkpt>
      <trkpt lat="36.633540" lon="-117.023710">
        <ele>45.970</ele>
        <time>2018-12-27T19:40:22Z</time>
      </trkpt>
      <trkpt lat="36.633400" lon="-117.023530">
        <ele>45.964</ele>
        <time>2018-12-27T19:40:42Z</time>
      </trkpt>
      <trkpt lat="36.633080" lon="-117.023110">
        <ele>45.153</ele>
        <time>2018-12-27T19:41:02Z</time>
      </trkpt>
      <trkpt lat="36.632840" lon="-117.022770">
        <ele>44.462</ele>
        <time>2018-12-27T19:41:22Z</time>
      </trkpt>
      <trkpt lat="36.632780" lon="-117.022670">
        <ele>44.362</ele>
        <time>2018-12-27T19:41:42Z</time>
      </trkpt>
      <trkpt lat="36.632560" lon="-117.022350">
        <ele>43.871</ele>
        <time>2018-12-27T19:42:02Z</time>
      </trkpt>
      <trkpt lat="36.632320" lon="-117.021980">
        <ele>43.441</ele>
        <time>2018-12-27T19:42:22Z</time>
      </trkpt>
      <trkpt lat="36.632080" lon="-117.021590">
        <ele>43.515</ele>
        <time>2018-12-27T19:42:42Z</time>
      </trkpt>
      <trkpt lat="36.631830" lon="-117.021190">
        <ele>43.708</ele>
        <time>2018-12-27T19:43:02Z</time>
      </trkpt>
      <trkpt lat="36.631700" lon="-117.020980">
        <ele>43.840</ele>
        <time>2018-12-27T19:43:22Z</time>
      </trkpt>
      <trkpt lat="36.631470" lon="-117.020640">
        <ele>43.788</ele>
        <time>2018-12-27T19:43:42Z</time>
      </trkpt>
      <trkpt lat="36.631100" lon="-117.020110">
        <ele>43.773</ele>
        <time>2018-12-27T19:44:02Z</time>
      </trkpt>
      <trkpt lat="36.630290" lon="-117.018980">
        <ele>44.294</ele>
        <time>2018-12-27T19:44:22Z</time>
      </trkpt>
      <trkpt lat="36.629950" lon="-117.018510">
        <ele>44.568</ele>
        <time>2018-12-27T19:44:42Z</time>
      </trkpt>
      <trkpt lat="36.629600" lon="-117.018020">
        <ele>44.557</ele>
        <time>2018-12-27T19:45:02Z</time>
      </trkpt>
      <trkpt lat="36.629410" lon="-117.017740">
        <ele>44.596</ele>
        <time>2018-12-27T19:45:22Z</time>
      </trkpt>
      <trkpt lat="36.629240" lon="-117.017490">
        <ele>44.426</ele>
        <time>2018-12-27T19:45:42Z</time>
      </trkpt>
      <trkpt lat="36.629070" lon="-117.017210">
        <ele>44.544</ele>
        <time>2018-12-27T19:46:02Z</time>
      </trkpt>
      <trkpt lat="36.628970" lon="-117.017040">
        <ele>44.505</ele>
        <time>2018-12-27T19:46:22Z</time>
      </trkpt>
      <trkpt lat="36.628850" lon="-117.016840">
        <ele>44.615</ele>
        <time>2018-12-27T19:46:42Z</time>
      </trkpt>
      <trkpt lat="36.628750" lon="-117.016660">
        <ele>44.808</ele>
        <time>2018-12-27T19:47:02Z</time>
      </trkpt>
      <trkpt lat="36.628520" lon="-117.016250">
        <ele>45.187</ele>
        <time>2018-12-27T19:47:22Z</time>
      </trkpt>
      <trkpt lat="36.628430" lon="-117.016090">
        <ele>45.245</ele>
        <time>2018-12-27T19:47:42Z</time>
      </trkpt>
      <trkpt lat="36.628290" lon="-117.015800">
        <ele>45.370</ele>
        <time>2018-12-27T19:48:02Z</time>
      </trkpt>
      <trkpt lat="36.628120" lon="-117.015470">
        <ele>45.391</ele>
        <time>2018-12-27T19:48:22Z</time>
      </trkpt>
      <trkpt lat="36.627920" lon="-117.015040">
        <ele>45.545</ele>
        <time>2018-12-27T19:48:42Z</time>
      </trkpt>
      <trkpt lat="36.627730" lon="-117.014620">
        <ele>45.934</ele>
        <time>2018-12-27T19:49:02Z</time>
      </trkpt>
      <trkpt lat="36.627490" lon="-117.014050">
        <ele>46.343</ele>
        <time>2018-12-27T19:49:22Z</time>
      </trkpt>
      <trkpt lat="36.627360" lon="-117.013700">
        <ele>46.583</ele>
        <time>2018-12-27T19:49:42Z</time>
      </trkpt>
      <trkpt lat="36.627270" lon="-117.013460">
        <ele>46.515</ele>
        <time>2018-12-27T19:50:02Z</time>
      </trkpt>
      <trkpt lat="36.627200" lon="-117.013260">
        <ele>46.465</ele>
        <time>2018-12-27T19:50:22Z</time>
      </trkpt>
      <trkpt lat="36.627110" lon="-117.013020">
        <ele>46.211</ele>
        <time>2018-12-27T19:50:42Z</time>
      </trkpt>
      <trkpt lat="36.626930" lon="-117.012480">
        <ele>45.908</ele>
        <time>2018-12-27T19:51:02Z</time>
      </trkpt>
      <trkpt lat="36.626810" lon="-117.012070">
        <ele>45.974</ele>
        <time>2018-12-27T19:51:22Z</time>
      </trkpt>
      <trkpt lat="36.626690" lon="-117.011650">
        <ele>46.022</ele>
        <time>2018-12-27T19:51:42Z</time>
      </trkpt>
      <trkpt lat="36.626590" lon="-117.011290">
        <ele>46.047</ele>
        <time>2018-12-27T19:52:02Z</time>
      </trkpt>
      <trkpt lat="36.626520" lon="-117.011000">
        <ele>46.078</ele>
        <time>2018-12-27T19:52:22Z</time>
      </trkpt>
      <trkpt lat="36.626430" lon="-117.010580">
        <ele>46.062</ele>
        <time>2018-12-27T19:52:42Z</time>
      </trkpt>
      <trkpt lat="36.626330" lon="-117.010120">
        <ele>45.921</ele>
        <time>2018-12-27T19:53:02Z</time>
      </trkpt>
      <trkpt lat="36.626240" lon="-117.009670">
        <ele>45.890</ele>
        <time>2018-12-27T19:53:22Z</time>
      </trkpt>
      <trkpt lat="36.626140" lon="-117.009170">
        <ele>45.840</ele>
        <time>2018-12-27T19:53:42Z</time>
      </trkpt>
      <trkpt lat="36.626050" lon="-117.008770">
        <ele>45.725</ele>
        <time>2018-12-27T19:54:02Z</time>
      </trkpt>
      <trkpt lat="36.626000" lon="-117.008590">
        <ele>45.626</ele>
        <time>2018-12-27T19:54:22Z</time>
      </trkpt>
      <trkpt lat="36.625940" lon="-117.008360">
        <ele>45.408</ele>
        <time>2018-12-27T19:54:42Z</time>
      </trkpt>
      <trkpt lat="36.625890" lon="-117.008150">
        <ele>45.208</ele>
        <time>2018-12-27T19:55:02Z</time>
      </trkpt>
      <trkpt lat="36.625810" lon="-117.007910">
        <ele>44.815</ele>
        <time>2018-12-27T19:55:22Z</time>
      </trkpt>
      <trkpt lat="36.625640" lon="-117.007410">
        <ele>43.743</ele>
        <time>2018-12-27T19:55:42Z</time>
      </trkpt>
      <trkpt lat="36.625570" lon="-117.007240">
        <ele>43.288</ele>
        <time>2018-12-27T19:56:02Z</time>
      </trkpt>
      <trkpt lat="36.625490" lon="-117.007050">
        <ele>42.799</ele>
        <time>2018-12-27T19:56:22Z</time>
      </trkpt>
      <trkpt lat="36.625350" lon="-117.006730">
        <ele>41.663</ele>
        <time>2018-12-27T19:56:42Z</time>
      </trkpt>
      <trkpt lat="36.625220" lon="-117.006470">
        <ele>40.752</ele>
        <time>2018-12-27T19:57:02Z</time>
      </trkpt>
      <trkpt lat="36.625130" lon="-117.006290">
        <ele>40.041</ele>
        <time>2018-12-27T19:57:22Z</time>
      </trkpt>
      <trkpt lat="36.624980" lon="-117.006000">
        <ele>39.331</ele>
        <time>2018-12-27T19:57:42Z</time>
      </trkpt>
      <trkpt lat="36.624870" lon="-117.005830">
        <ele>38.869</ele>
        <time>2018-12-27T19:58:02Z</time>
      </trkpt>
      <trkpt lat="36.624760" lon="-117.005650">
        <ele>38.304</ele>
        <time>2018-12-27T19:58:22Z</time>
      </trkpt>
      <trkpt lat="36.624640" lon="-117.005470">
        <ele>38.124</ele>
        <time>2018-12-27T19:58:42Z</time>
      </trkpt>
      <trkpt lat="36.624500" lon="-117.005280">
        <ele>36.808</ele>
        <time>2018-12-27T19:59:02Z</time>
      </trkpt>
      <trkpt lat="36.624350" lon="-117.005080">
        <ele>35.419</ele>
        <time>2018-12-27T19:59:22Z</time>
      </trkpt>
      <trkpt lat="36.624260" lon="-117.004960">
        <ele>34.717</ele>
        <time>2018-12-27T19:59:42Z</time>
      </trkpt>
      <trkpt lat="36.624150" lon="-117.004820">
        <ele>33.812</ele>
        <time>2018-12-27T20:00:02Z</time>
      </trkpt>
      <trkpt lat="36.624060" lon="-117.004700">
        <ele>33.253</ele>
        <time>2018-12-27T20:00:22Z</time>
      </trkpt>
      <trkpt lat="36.623980" lon="-117.004600">
        <ele>32.617</ele>
        <time>2018-12-27T20:00:42Z</time>
      </trkpt>
      <trkpt lat="36.623710" lon="-117.004280">
        <ele>31.166</ele>
        <time>2018-12-27T20:01:02Z</time>
      </trkpt>
      <trkpt lat="36.623340" lon="-117.003850">
        <ele>28.655</ele>
        <time>2018-12-27T20:01:22Z</time>
      </trkpt>
      <trkpt lat="36.622860" lon="-117.003310">
        <ele>25.325</ele>
        <time>2018-12-27T20:01:42Z</time>
      </trkpt>
      <trkpt lat="36.622410" lon="-117.002800">
        <ele>22.977</ele>
        <time>2018-12-27T20:02:02Z</time>
      </trkpt>
      <trkpt lat="36.621560" lon="-117.001820">
        <ele>19.361</ele>
        <time>2018-12-27T20:02:22Z</time>
      </trkpt>
      <trkpt lat="36.621350" lon="-117.001580">
        <ele>18.627</ele>
        <time>2018-12-27T20:02:42Z</time>
      </trkpt>
      <trkpt lat="36.620810" lon="-117.000950">
        <ele>16.808</ele>
        <time>2018-12-27T20:03:02Z</time>
      </trkpt>
      <trkpt lat="36.620430" lon="-117.000510">
        <ele>15.420</ele>
        <time>2018-12-27T20:03:22Z</time>
      </trkpt>
      <trkpt lat="36.619410" lon="-116.999330">
        <ele>12.048</ele>
        <time>2018-12-27T20:03:42Z</time>
      </trkpt>
      <trkpt lat="36.619160" lon="-116.999030">
        <ele>11.693</ele>
        <time>2018-12-27T20:04:02Z</time>
      </trkpt>
      <trkpt lat="36.618860" lon="-116.998690">
        <ele>10.834</ele>
        <time>2018-12-27T20:04:22Z</time>
      </trkpt>
      <trkpt lat="36.618210" lon="-116.997900">
        <ele>7.468</ele>
        <time>2018-12-27T20:04:42Z</time>
      </trkpt>
      <trkpt lat="36.617940" lon="-116.997570">
        <ele>5.717</ele>
        <time>2018-12-27T20:05:02Z</time>
      </trkpt>
      <trkpt lat="36.616290" lon="-116.995570">
        <ele>-2.856</ele>
        <time>2018-12-27T20:05:22Z</time>
      </trkpt>
      <trkpt lat="36.615390" lon="-116.994470">
        <ele>-7.926</ele>
        <time>2018-12-27T20:05:42Z</time>
      </trkpt>
      <trkpt lat="36.614570" lon="-116.993450">
        <ele>-11.635</ele>
        <time>2018-12-27T20:06:02Z</time>
      </trkpt>
      <trkpt lat="36.613960" lon="-116.992680">
        <ele>-15.586</ele>
        <time>2018-12-27T20:06:22Z</time>
      </trkpt>
      <trkpt lat="36.613160" lon="-116.991660">
        <ele>-18.814</ele>
        <time>2018-12-27T20:06:42Z</time>
      </trkpt>
      <trkpt lat="36.612620" lon="-116.990970">
        <ele>-21.708</ele>
        <time>2018-12-27T20:07:02Z</time>
      </trkpt>
      <trkpt lat="36.611380" lon="-116.989360">
        <ele>-28.026</ele>
        <time>2018-12-27T20:07:22Z</time>
      </trkpt>
      <trkpt lat="36.610240" lon="-116.987870">
        <ele>-34.394</ele>
        <time>2018-12-27T20:07:42Z</time>
      </trkpt>
      <trkpt lat="36.609530" lon="-116.986920">
        <ele>-38.079</ele>
        <time>2018-12-27T20:08:02Z</time>
      </trkpt>
      <trkpt lat="36.608660" lon="-116.985760">
        <ele>-41.850</ele>
        <time>2018-12-27T20:08:22Z</time>
      </trkpt>
      <trkpt lat="36.608370" lon="-116.985380">
        <ele>-43.364</ele>
        <time>2018-12-27T20:08:42Z</time>
      </trkpt>
      <trkpt lat="36.606190" lon="-116.982450">
        <ele>-51.373</ele>
        <time>2018-12-27T20:09:02Z</time>
      </trkpt>
      <trkpt lat="36.605750" lon="-116.981850">
        <ele>-52.232</ele>
        <time>2018-12-27T20:09:22Z</time>
      </trkpt>
      <trkpt lat="36.605200" lon="-116.981140">
        <ele>-52.862</ele>
        <time>2018-12-27T20:09:42Z</time>
      </trkpt>
      <trkpt lat="36.605140" lon="-116.981060">
        <ele>-52.876</ele>
        <time>2018-12-27T20:10:02Z</time>
      </trkpt>
      <trkpt lat="36.604900" lon="-116.980740">
        <ele>-52.990</ele>
        <time>2018-12-27T20:10:22Z</time>
      </trkpt>
      <trkpt lat="36.604710" lon="-116.980510">
        <ele>-53.019</ele>
        <time>2018-12-27T20:10:42Z</time>
      </trkpt>
      <trkpt lat="36.604320" lon="-116.980040">
        <ele>-53.008</ele>
        <time>2018-12-27T20:11:02Z</time>
      </trkpt>
      <trkpt lat="36.604080" lon="-116.979770">
        <ele>-53.010</ele>
        <time>2018-12-27T20:11:22Z</time>
      </trkpt>
      <trkpt lat="36.603950" lon="-116.979620">
        <ele>-52.988</ele>
        <time>2018-12-27T20:11:42Z</time>
      </trkpt>
      <trkpt lat="36.601650" lon="-116.977140">
        <ele>-50.573</ele>
        <time>2018-12-27T20:12:02Z</time>
      </trkpt>
      <trkpt lat="36.601470" lon="-116.976950">
        <ele>-50.474</ele>
        <time>2018-12-27T20:12:22Z</time>
      </trkpt>
      <trkpt lat="36.601250" lon="-116.976710">
        <ele>-50.268</ele>
        <time>2018-12-27T20:12:42Z</time>
      </trkpt>
      <trkpt lat="36.600960" lon="-116.976390">
        <ele>-50.187</ele>
        <time>2018-12-27T20:13:02Z</time>
      </trkpt>
      <trkpt lat="36.600700" lon="-116.976110">
        <ele>-49.916</ele>
        <time>2018-12-27T20:13:22Z</time>
      </trkpt>
      <trkpt lat="36.600450" lon="-116.975820">
        <ele>-49.586</ele>
        <time>2018-12-27T20:13:42Z</time>
      </trkpt>
      <trkpt lat="36.600260" lon="-116.975600">
        <ele>-49.439</ele>
        <time>2018-12-27T20:14:02Z</time>
      </trkpt>
      <trkpt lat="36.599890" lon="-116.975140">
        <ele>-49.301</ele>
        <time>2018-12-27T20:14:22Z</time>
      </trkpt>
      <trkpt lat="36.599540" lon="-116.974670">
        <ele>-49.121</ele>
        <time>2018-12-27T20:14:42Z</time>
      </trkpt>
      <trkpt lat="36.599370" lon="-116.974430">
        <ele>-49.008</ele>
        <time>2018-12-27T20:15:02Z</time>
      </trkpt>
      <trkpt lat="36.599170" lon="-116.974160">
        <ele>-49.036</ele>
        <time>2018-12-27T20:15:22Z</time>
      </trkpt>
      <trkpt lat="36.599090" lon="-116.974040">
        <ele>-49.014</ele>
        <time>2018-12-27T20:15:42Z</time>
      </trkpt>
      <trkpt lat="36.598920" lon="-116.973790">
        <ele>-49.079</ele>
        <time>2018-12-27T20:16:02Z</time>
      </trkpt>
      <trkpt lat="36.598660" lon="-116.973410">
        <ele>-49.030</ele>
        <time>2018-12-27T20:16:22Z</time>
      </trkpt>
      <trkpt lat="36.598370" lon="-116.972990">
        <ele>-48.944</ele>
        <time>2018-12-27T20:16:42Z</time>
      </trkpt>
      <trkpt lat="36.598060" lon="-116.972530">
        <ele>-48.933</ele>
        <time>2018-12-27T20:17:02Z</time>
      </trkpt>
      <trkpt lat="36.597980" lon="-116.972410">
        <ele>-48.982</ele>
        <time>2018-12-27T20:17:22Z</time>
      </trkpt>
      <trkpt lat="36.597730" lon="-116.972030">
        <ele>-49.042</ele>
        <time>2018-12-27T20:17:42Z</time>
      </trkpt>
      <trkpt lat="36.597570" lon="-116.971770">
        <ele>-48.964</ele>
        <time>2018-12-27T20:18:02Z</time>
      </trkpt>
      <trkpt lat="36.597490" lon="-116.971630">
        <ele>-48.806</ele>
        <time>2018-12-27T20:18:22Z</time>
      </trkpt>
      <trkpt lat="36.597410" lon="-116.971500">
        <ele>-48.816</ele>
        <time>2018-12-27T20:18:42Z</time>
      </trkpt>
      <trkpt lat="36.597240" lon="-116.971220">
        <ele>-48.808</ele>
        <time>2018-12-27T20:19:02Z</time>
      </trkpt>
      <trkpt lat="36.597100" lon="-116.970960">
        <ele>-48.829</ele>
        <time>2018-12-27T20:19:22Z</time>
      </trkpt>
      <trkpt lat="36.596950" lon="-116.970680">
        <ele>-48.937</ele>
        <time>2018-12-27T20:19:42Z</time>
      </trkpt>
      <trkpt lat="36.596820" lon="-116.970420">
        <ele>-48.962</ele>
        <time>2018-12-27T20:20:02Z</time>
      </trkpt>
      <trkpt lat="36.596580" lon="-116.969970">
        <ele>-49.163</ele>
        <time>2018-12-27T20:20:22Z</time>
      </trkpt>
      <trkpt lat="36.596460" lon="-116.969720">
        <ele>-49.237</ele>
        <time>2018-12-27T20:20:42Z</time>
      </trkpt>
      <trkpt lat="36.596330" lon="-116.969410">
        <ele>-49.356</ele>
        <time>2018-12-27T20:21:02Z</time>
      </trkpt>
      <trkpt lat="36.596210" lon="-116.969130">
        <ele>-49.475</ele>
        <time>2018-12-27T20:21:22Z</time>
      </trkpt>
      <trkpt lat="36.596050" lon="-116.968750">
        <ele>-49.685</ele>
        <time>2018-12-27T20:21:42Z</time>
      </trkpt>
      <trkpt lat="36.595820" lon="-116.968180">
        <ele>-50.163</ele>
        <time>2018-12-27T20:22:02Z</time>
      </trkpt>
      <trkpt lat="36.595290" lon="-116.966770">
        <ele>-50.744</ele>
        <time>2018-12-27T20:22:22Z</time>
      </trkpt>
      <trkpt lat="36.595210" lon="-116.966560">
        <ele>-50.618</ele>
        <time>2018-12-27T20:22:42Z</time>
      </trkpt>
      <trkpt lat="36.595060" lon="-116.966120">
        <ele>-50.408</ele>
        <time>2018-12-27T20:23:02Z</time>
      </trkpt>
      <trkpt lat="36.594980" lon="-116.965890">
        <ele>-50.479</ele>
        <time>2018-12-27T20:23:22Z</time>
      </trkpt>
      <trkpt lat="36.594910" lon="-116.965710">
        <ele>-50.477</ele>
        <time>2018-12-27T20:23:42Z</time>
      </trkpt>
      <trkpt lat="36.594760" lon="-116.965230">
        <ele>-50.362</ele>
        <time>2018-12-27T20:24:02Z</time>
      </trkpt>
      <trkpt lat="36.594620" lon="-116.964780">
        <ele>-50.433</ele>
        <time>2018-12-27T20:24:22Z</time>
      </trkpt>
      <trkpt lat="36.594510" lon="-116.964350">
        <ele>-50.627</ele>
        <time>2018-12-27T20:24:42Z</time>
      </trkpt>
      <trkpt lat="36.594350" lon="-116.963720">
        <ele>-50.966</ele>
        <time>2018-12-27T20:25:02Z</time>
      </trkpt>
      <trkpt lat="36.594270" lon="-116.963410">
        <ele>-51.035</ele>
        <time>2018-12-27T20:25:22Z</time>
      </trkpt>
      <trkpt lat="36.594200" lon="-116.963120">
        <ele>-51.155</ele>
        <time>2018-12-27T20:25:42Z</time>
      </trkpt>
      <trkpt lat="36.594110" lon="-116.962740">
        <ele>-51.312</ele>
        <time>2018-12-27T20:26:02Z</time>
      </trkpt>
      <trkpt lat="36.594020" lon="-116.962340">
        <ele>-51.532</ele>
        <time>2018-12-27T20:26:22Z</time>
      </trkpt>
      <trkpt lat="36.593930" lon="-116.961880">
        <ele>-51.605</ele>
        <time>2018-12-27T20:26:42Z</time>
      </trkpt>
      <trkpt lat="36.593690" lon="-116.960640">
        <ele>-52.108</ele>
        <time>2018-12-27T20:27:02Z</time>
      </trkpt>
      <trkpt lat="36.593360" lon="-116.958990">
        <ele>-53.244</ele>
        <time>2018-12-27T20:27:22Z</time>
      </trkpt>
      <trkpt lat="36.593210" lon="-116.958180">
        <ele>-53.842</ele>
        <time>2018-12-27T20:27:42Z</time>
      </trkpt>
      <trkpt lat="36.593110" lon="-116.957700">
        <ele>-54.147</ele>
        <time>2018-12-27T20:28:02Z</time>
      </trkpt>
      <trkpt lat="36.592960" lon="-116.956910">
        <ele>-54.618</ele>
        <time>2018-12-27T20:28:22Z</time>
      </trkpt>
      <trkpt lat="36.592830" lon="-116.956280">
        <ele>-55.042</ele>
        <time>2018-12-27T20:28:42Z</time>
      </trkpt>
      <trkpt lat="36.592790" lon="-116.956110">
        <ele>-55.161</ele>
        <time>2018-12-27T20:29:02Z</time>
      </trkpt>
      <trkpt lat="36.592760" lon="-116.955940">
        <ele>-55.210</ele>
        <time>2018-12-27T20:29:22Z</time>
      </trkpt>
      <trkpt lat="36.592700" lon="-116.955640">
        <ele>-55.350</ele>
        <time>2018-12-27T20:29:42Z</time>
      </trkpt>
      <trkpt lat="36.592630" lon="-116.955320">
        <ele>-55.567</ele>
        <time>2018-12-27T20:30:02Z</time>
      </trkpt>
      <trkpt lat="36.592590" lon="-116.955190">
        <ele>-55.681</ele>
        <time>2018-12-27T20:30:22Z</time>
      </trkpt>
      <trkpt lat="36.592540" lon="-116.955010">
        <ele>-55.719</ele>
        <time>2018-12-27T20:30:42Z</time>
      </trkpt>
      <trkpt lat="36.592470" lon="-116.954760">
        <ele>-55.908</ele>
        <time>2018-12-27T20:31:02Z</time>
      </trkpt>
      <trkpt lat="36.592400" lon="-116.954540">
        <ele>-55.969</ele>
        <time>2018-12-27T20:31:22Z</time>
      </trkpt>
      <trkpt lat="36.592290" lon="-116.954250">
        <ele>-55.717</ele>
        <time>2018-12-27T20:31:42Z</time>
      </trkpt>
      <trkpt lat="36.592220" lon="-116.954060">
        <ele>-55.672</ele>
        <time>2018-12-27T20:32:02Z</time>
      </trkpt>
      <trkpt lat="36.592120" lon="-116.953820">
        <ele>-55.513</ele>
        <time>2018-12-27T20:32:22Z</time>
      </trkpt>
      <trkpt lat="36.591990" lon="-116.953540">
        <ele>-55.447</ele>
        <time>2018-12-27T20:32:42Z</time>
      </trkpt>
      <trkpt lat="36.591840" lon="-116.953240">
        <ele>-55.356</ele>
        <time>2018-12-27T20:33:02Z</time>
      </trkpt>
      <trkpt lat="36.591770" lon="-116.953100">
        <ele>-55.235</ele>
        <time>2018-12-27T20:33:22Z</time>
      </trkpt>
      <trkpt lat="36.591640" lon="-116.952850">
        <ele>-55.115</ele>
        <time>2018-12-27T20:33:42Z</time>
      </trkpt>
      <trkpt lat="36.591550" lon="-116.952700">
        <ele>-55.183</ele>
        <time>2018-12-27T20:34:02Z</time>
      </trkpt>
      <trkpt lat="36.591390" lon="-116.952440">
        <ele>-55.125</ele>
        <time>2018-12-27T20:34:22Z</time>
      </trkpt>
      <trkpt lat="36.591230" lon="-116.952180">
        <ele>-55.017</ele>
        <time>2018-12-27T20:34:42Z</time>
      </trkpt>
      <trkpt lat="36.590890" lon="-116.951650">
        <ele>-55.008</ele>
        <time>2018-12-27T20:35:02Z</time>
      </trkpt>
      <trkpt lat="36.590660" lon="-116.951290">
        <ele>-55.191</ele>
        <time>2018-12-27T20:35:22Z</time>
      </trkpt>
      <trkpt lat="36.590560" lon="-116.951130">
        <ele>-55.149</ele>
        <time>2018-12-27T20:35:42Z</time>
      </trkpt>
      <trkpt lat="36.590480" lon="-116.950980">
        <ele>-55.184</ele>
        <time>2018-12-27T20:36:02Z</time>
      </trkpt>
      <trkpt lat="36.590340" lon="-116.950720">
        <ele>-55.145</ele>
        <time>2018-12-27T20:36:22Z</time>
      </trkpt>
      <trkpt lat="36.590240" lon="-116.950520">
        <ele>-55.139</ele>
        <time>2018-12-27T20:36:42Z</time>
      </trkpt>
      <trkpt lat="36.590070" lon="-116.950160">
        <ele>-55.138</ele>
        <time>2018-12-27T20:37:02Z</time>
      </trkpt>
      <trkpt lat="36.590020" lon="-116.950040">
        <ele>-55.197</ele>
        <time>2018-12-27T20:37:22Z</time>
      </trkpt>
      <trkpt lat="36.589950" lon="-116.949870">
        <ele>-55.057</ele>
        <time>2018-12-27T20:37:42Z</time>
      </trkpt>
      <trkpt lat="36.589810" lon="-116.949520">
        <ele>-55.082</ele>
        <time>2018-12-27T20:38:02Z</time>
      </trkpt>
      <trkpt lat="36.589740" lon="-116.949360">
        <ele>-55.143</ele>
        <time>2018-12-27T20:38:22Z</time>
      </trkpt>
      <trkpt lat="36.589670" lon="-116.949160">
        <ele>-55.117</ele>
        <time>2018-12-27T20:38:42Z</time>
      </trkpt>
      <trkpt lat="36.589640" lon="-116.949070">
        <ele>-55.108</ele>
        <time>2018-12-27T20:39:02Z</time>
      </trkpt>
      <trkpt lat="36.589580" lon="-116.948870">
        <ele>-55.191</ele>
        <time>2018-12-27T20:39:22Z</time>
      </trkpt>
      <trkpt lat="36.589420" lon="-116.948420">
        <ele>-55.159</ele>
        <time>2018-12-27T20:39:42Z</time>
      </trkpt>
      <trkpt lat="36.589280" lon="-116.947990">
        <ele>-55.274</ele>
        <time>2018-12-27T20:40:02Z</time>
      </trkpt>
      <trkpt lat="36.588910" lon="-116.946870">
        <ele>-55.755</ele>
        <time>2018-12-27T20:40:22Z</time>
      </trkpt>
      <trkpt lat="36.588880" lon="-116.946770">
        <ele>-55.739</ele>
        <time>2018-12-27T20:40:42Z</time>
      </trkpt>
      <trkpt lat="36.588800" lon="-116.946520">
        <ele>-55.928</ele>
        <time>2018-12-27T20:41:02Z</time>
      </trkpt>
      <trkpt lat="36.588720" lon="-116.946260">
        <ele>-56.097</ele>
        <time>2018-12-27T20:41:22Z</time>
      </trkpt>
      <trkpt lat="36.588610" lon="-116.945910">
        <ele>-56.297</ele>
        <time>2018-12-27T20:41:42Z</time>
      </trkpt>
      <trkpt lat="36.588440" lon="-116.945260">
        <ele>-56.714</ele>
        <time>2018-12-27T20:42:02Z</time>
      </trkpt>
      <trkpt lat="36.588260" lon="-116.944450">
        <ele>-57.254</ele>
        <time>2018-12-27T20:42:22Z</time>
      </trkpt>
      <trkpt lat="36.588220" lon="-116.944250">
        <ele>-57.309</ele>
        <time>2018-12-27T20:42:42Z</time>
      </trkpt>
      <trkpt lat="36.588130" lon="-116.943840">
        <ele>-57.408</ele>
        <time>2018-12-27T20:43:02Z</time>
      </trkpt>
      <trkpt lat="36.588010" lon="-116.943340">
        <ele>-57.344</ele>
        <time>2018-12-27T20:43:22Z</time>
      </trkpt>
      <trkpt lat="36.587850" lon="-116.942790">
        <ele>-57.172</ele>
        <time>2018-12-27T20:43:42Z</time>
      </trkpt>
      <trkpt lat="36.587810" lon="-116.942690">
        <ele>-57.287</ele>
        <time>2018-12-27T20:44:02Z</time>
      </trkpt>
      <trkpt lat="36.587740" lon="-116.942480">
        <ele>-57.278</ele>
        <time>2018-12-27T20:44:22Z</time>
      </trkpt>
      <trkpt lat="36.587690" lon="-116.942370">
        <ele>-57.292</ele>
        <time>2018-12-27T20:44:42Z</time>
      </trkpt>
      <trkpt lat="36.587650" lon="-116.942280">
        <ele>-57.241</ele>
        <time>2018-12-27T20:45:02Z</time>
      </trkpt>
      <trkpt lat="36.587540" lon="-116.942050">
        <ele>-57.380</ele>
        <time>2018-12-27T20:45:22Z</time>
      </trkpt>
      <trkpt lat="36.587510" lon="-116.941990">
        <ele>-57.380</ele>
        <time>2018-12-27T20:45:42Z</time>
      </trkpt>
      <trkpt lat="36.587440" lon="-116.941860">
        <ele>-57.327</ele>
        <time>2018-12-27T20:46:02Z</time>
      </trkpt>
      <trkpt lat="36.587380" lon="-116.941750">
        <ele>-57.368</ele>
        <time>2018-12-27T20:46:22Z</time>
      </trkpt>
      <trkpt lat="36.587320" lon="-116.941670">
        <ele>-57.414</ele>
        <time>2018-12-27T20:46:42Z</time>
      </trkpt>
      <trkpt lat="36.587210" lon="-116.941500">
        <ele>-57.408</ele>
        <time>2018-12-27T20:47:02Z</time>
      </trkpt>
      <trkpt lat="36.587070" lon="-116.941290">
        <ele>-57.455</ele>
        <time>2018-12-27T20:47:22Z</time>
      </trkpt>
      <trkpt lat="36.586830" lon="-116.940990">
        <ele>-57.783</ele>
        <time>2018-12-27T20:47:42Z</time>
      </trkpt>
      <trkpt lat="36.586570" lon="-116.940650">
        <ele>-57.968</ele>
        <time>2018-12-27T20:48:02Z</time>
      </trkpt>
      <trkpt lat="36.586340" lon="-116.940350">
        <ele>-58.289</ele>
        <time>2018-12-27T20:48:22Z</time>
      </trkpt>
      <trkpt lat="36.586110" lon="-116.940040">
        <ele>-58.383</ele>
        <time>2018-12-27T20:48:42Z</time>
      </trkpt>
      <trkpt lat="36.586000" lon="-116.939880">
        <ele>-58.372</ele>
        <time>2018-12-27T20:49:02Z</time>
      </trkpt>
      <trkpt lat="36.585930" lon="-116.939790">
        <ele>-58.451</ele>
        <time>2018-12-27T20:49:22Z</time>
      </trkpt>
      <trkpt lat="36.585850" lon="-116.939660">
        <ele>-58.491</ele>
        <time>2018-12-27T20:49:42Z</time>
      </trkpt>
      <trkpt lat="36.585780" lon="-116.939550">
        <ele>-58.443</ele>
        <time>2018-12-27T20:50:02Z</time>
      </trkpt>
      <trkpt lat="36.585590" lon="-116.939220">
        <ele>-58.364</ele>
        <time>2018-12-27T20:50:22Z</time>
      </trkpt>
      <trkpt lat="36.585470" lon="-116.939010">
        <ele>-58.410</ele>
        <time>2018-12-27T20:50:42Z</time>
      </trkpt>
      <trkpt lat="36.585270" lon="-116.938620">
        <ele>-58.808</ele>
        <time>2018-12-27T20:51:02Z</time>
      </trkpt>
      <trkpt lat="36.585220" lon="-116.938520">
        <ele>-58.917</ele>
        <time>2018-12-27T20:51:22Z</time>
      </trkpt>
      <trkpt lat="36.585080" lon="-116.938220">
        <ele>-59.065</ele>
        <time>2018-12-27T20:51:42Z</time>
      </trkpt>
      <trkpt lat="36.584850" lon="-116.937690">
        <ele>-59.270</ele>
        <time>2018-12-27T20:52:02Z</time>
      </trkpt>
      <trkpt lat="36.584480" lon="-116.936880">
        <ele>-59.441</ele>
        <time>2018-12-27T20:52:22Z</time>
      </trkpt>
      <trkpt lat="36.584350" lon="-116.936590">
        <ele>-59.855</ele>
        <time>2018-12-27T20:52:42Z</time>
      </trkpt>
      <trkpt lat="36.584200" lon="-116.936290">
        <ele>-60.564</ele>
        <time>2018-12-27T20:53:02Z</time>
      </trkpt>
      <trkpt lat="36.584100" lon="-116.936110">
        <ele>-60.773</ele>
        <time>2018-12-27T20:53:22Z</time>
      </trkpt>
      <trkpt lat="36.583920" lon="-116.935820">
        <ele>-61.083</ele>
        <time>2018-12-27T20:53:42Z</time>
      </trkpt>
      <trkpt lat="36.583630" lon="-116.935370">
        <ele>-61.121</ele>
        <time>2018-12-27T20:54:02Z</time>
      </trkpt>
      <trkpt lat="36.583470" lon="-116.935120">
        <ele>-61.141</ele>
        <time>2018-12-27T20:54:22Z</time>
      </trkpt>
      <trkpt lat="36.583360" lon="-116.934980">
        <ele>-61.205</ele>
        <time>2018-12-27T20:54:42Z</time>
      </trkpt>
      <trkpt lat="36.583090" lon="-116.934640">
        <ele>-61.308</ele>
        <time>2018-12-27T20:55:02Z</time>
      </trkpt>
      <trkpt lat="36.582820" lon="-116.934320">
        <ele>-61.565</ele>
        <time>2018-12-27T20:55:22Z</time>
      </trkpt>
      <trkpt lat="36.582500" lon="-116.933950">
        <ele>-61.763</ele>
        <time>2018-12-27T20:55:42Z</time>
      </trkpt>
      <trkpt lat="36.582040" lon="-116.933430">
        <ele>-62.158</ele>
        <time>2018-12-27T20:56:02Z</time>
      </trkpt>
      <trkpt lat="36.581750" lon="-116.933110">
        <ele>-62.379</ele>
        <time>2018-12-27T20:56:22Z</time>
      </trkpt>
      <trkpt lat="36.581640" lon="-116.932990">
        <ele>-62.413</ele>
        <time>2018-12-27T20:56:42Z</time>
      </trkpt>
      <trkpt lat="36.581440" lon="-116.932750">
        <ele>-62.622</ele>
        <time>2018-12-27T20:57:02Z</time>
      </trkpt>
      <trkpt lat="36.581240" lon="-116.932550">
        <ele>-62.991</ele>
        <time>2018-12-27T20:57:22Z</time>
      </trkpt>
      <trkpt lat="36.580950" lon="-116.932270">
        <ele>-63.241</ele>
        <time>2018-12-27T20:57:42Z</time>
      </trkpt>
      <trkpt lat="36.580650" lon="-116.932000">
        <ele>-63.771</ele>
        <time>2018-12-27T20:58:02Z</time>
      </trkpt>
      <trkpt lat="36.580050" lon="-116.931470">
        <ele>-64.341</ele>
        <time>2018-12-27T20:58:22Z</time>
      </trkpt>
      <trkpt lat="36.579520" lon="-116.931030">
        <ele>-64.915</ele>
        <time>2018-12-27T20:58:42Z</time>
      </trkpt>
      <trkpt lat="36.579200" lon="-116.930750">
        <ele>-65.208</ele>
        <time>2018-12-27T20:59:02Z</time>
      </trkpt>
      <trkpt lat="36.578890" lon="-116.930480">
        <ele>-65.590</ele>
        <time>2018-12-27T20:59:22Z</time>
      </trkpt>
      <trkpt lat="36.578220" lon="-116.929900">
        <ele>-66.218</ele>
        <time>2018-12-27T20:59:42Z</time>
      </trkpt>
      <trkpt lat="36.578040" lon="-116.929750">
        <ele>-66.443</ele>
        <time>2018-12-27T21:00:02Z</time>
      </trkpt>
      <trkpt lat="36.577620" lon="-116.929350">
        <ele>-66.894</ele>
        <time>2018-12-27T21:00:22Z</time>
      </trkpt>
      <trkpt lat="36.577320" lon="-116.929030">
        <ele>-67.088</ele>
        <time>2018-12-27T21:00:42Z</time>
      </trkpt>
      <trkpt lat="36.577170" lon="-116.928860">
        <ele>-67.257</ele>
        <time>2018-12-27T21:01:02Z</time>
      </trkpt>
      <trkpt lat="36.576970" lon="-116.928610">
        <ele>-67.396</ele>
        <time>2018-12-27T21:01:22Z</time>
      </trkpt>
      <trkpt lat="36.576830" lon="-116.928430">
        <ele>-67.446</ele>
        <time>2018-12-27T21:01:42Z</time>
      </trkpt>
      <trkpt lat="36.576640" lon="-116.928150">
        <ele>-67.684</ele>
        <time>2018-12-27T21:02:02Z</time>
      </trkpt>
      <trkpt lat="36.576490" lon="-116.927940">
        <ele>-67.707</ele>
        <time>2018-12-27T21:02:22Z</time>
      </trkpt>
      <trkpt lat="36.576340" lon="-116.927700">
        <ele>-67.817</ele>
        <time>2018-12-27T21:02:42Z</time>
      </trkpt>
      <trkpt lat="36.576200" lon="-116.927480">
        <ele>-67.908</ele>
        <time>2018-12-27T21:03:02Z</time>
      </trkpt>
      <trkpt lat="36.575990" lon="-116.927100">
        <ele>-68.091</ele>
        <time>2018-12-27T21:03:22Z</time>
      </trkpt>
      <trkpt lat="36.575860" lon="-116.926830">
        <ele>-68.069</ele>
        <time>2018-12-27T21:03:42Z</time>
      </trkpt>
      <trkpt lat="36.575760" lon="-116.926620">
        <ele>-68.054</ele>
        <time>2018-12-27T21:04:02Z</time>
      </trkpt>
      <trkpt lat="36.575580" lon="-116.926240">
        <ele>-68.075</ele>
        <time>2018-12-27T21:04:22Z</time>
      </trkpt>
      <trkpt lat="36.575400" lon="-116.925840">
        <ele>-68.139</ele>
        <time>2018-12-27T21:04:42Z</time>
      </trkpt>
      <trkpt lat="36.575180" lon="-116.925350">
        <ele>-68.248</ele>
        <time>2018-12-27T21:05:02Z</time>
      </trkpt>
      <trkpt lat="36.575010" lon="-116.924980">
        <ele>-68.257</ele>
        <time>2018-12-27T21:05:22Z</time>
      </trkpt>
      <trkpt lat="36.574780" lon="-116.924470">
        <ele>-68.327</ele>
        <time>2018-12-27T21:05:42Z</time>
      </trkpt>
      <trkpt lat="36.574540" lon="-116.923890">
        <ele>-68.479</ele>
        <time>2018-12-27T21:06:02Z</time>
      </trkpt>
      <trkpt lat="36.574360" lon="-116.923440">
        <ele>-68.505</ele>
        <time>2018-12-27T21:06:22Z</time>
      </trkpt>
      <trkpt lat="36.574170" lon="-116.922920">
        <ele>-68.625</ele>
        <time>2018-12-27T21:06:42Z</time>
      </trkpt>
      <trkpt lat="36.574110" lon="-116.922770">
        <ele>-68.708</ele>
        <time>2018-12-27T21:07:02Z</time>
      </trkpt>
      <trkpt lat="36.574040" lon="-116.922560">
        <ele>-68.850</ele>
        <time>2018-12-27T21:07:22Z</time>
      </trkpt>
      <trkpt lat="36.573960" lon="-116.922330">
        <ele>-68.848</ele>
        <time>2018-12-27T21:07:42Z</time>
      </trkpt>
      <trkpt lat="36.573870" lon="-116.922040">
        <ele>-68.933</ele>
        <time>2018-12-27T21:08:02Z</time>
      </trkpt>
      <trkpt lat="36.573830" lon="-116.921920">
        <ele>-69.054</ele>
        <time>2018-12-27T21:08:22Z</time>
      </trkpt>
      <trkpt lat="36.573720" lon="-116.921530">
        <ele>-69.148</ele>
        <time>2018-12-27T21:08:42Z</time>
      </trkpt>
      <trkpt lat="36.573650" lon="-116.921280">
        <ele>-69.237</ele>
        <time>2018-12-27T21:09:02Z</time>
      </trkpt>
      <trkpt lat="36.573580" lon="-116.921000">
        <ele>-69.396</ele>
        <time>2018-12-27T21:09:22Z</time>
      </trkpt>
      <trkpt lat="36.573480" lon="-116.920630">
        <ele>-69.516</ele>
        <time>2018-12-27T21:09:42Z</time>
      </trkpt>
      <trkpt lat="36.573330" lon="-116.920030">
        <ele>-69.622</ele>
        <time>2018-12-27T21:10:02Z</time>
      </trkpt>
      <trkpt lat="36.573120" lon="-116.919170">
        <ele>-70.162</ele>
        <time>2018-12-27T21:10:22Z</time>
      </trkpt>
      <trkpt lat="36.572940" lon="-116.918440">
        <ele>-70.608</ele>
        <time>2018-12-27T21:10:42Z</time>
      </trkpt>
      <trkpt lat="36.572820" lon="-116.918040">
        <ele>-71.208</ele>
        <time>2018-12-27T21:11:02Z</time>
      </trkpt>
      <trkpt lat="36.572700" lon="-116.917680">
        <ele>-71.945</ele>
        <time>2018-12-27T21:11:22Z</time>
      </trkpt>
      <trkpt lat="36.572600" lon="-116.917390">
        <ele>-71.833</ele>
        <time>2018-12-27T21:11:42Z</time>
      </trkpt>
      <trkpt lat="36.572390" lon="-116.916840">
        <ele>-72.178</ele>
        <time>2018-12-27T21:12:02Z</time>
      </trkpt>
      <trkpt lat="36.572350" lon="-116.916760">
        <ele>-72.189</ele>
        <time>2018-12-27T21:12:22Z</time>
      </trkpt>
      <trkpt lat="36.572150" lon="-116.916330">
        <ele>-71.893</ele>
        <time>2018-12-27T21:12:42Z</time>
      </trkpt>
      <trkpt lat="36.571990" lon="-116.916020">
        <ele>-71.712</ele>
        <time>2018-12-27T21:13:02Z</time>
      </trkpt>
      <trkpt lat="36.571850" lon="-116.915760">
        <ele>-72.061</ele>
        <time>2018-12-27T21:13:22Z</time>
      </trkpt>
      <trkpt lat="36.571660" lon="-116.915460">
        <ele>-71.911</ele>
        <time>2018-12-27T21:13:42Z</time>
      </trkpt>
      <trkpt lat="36.571550" lon="-116.915280">
        <ele>-71.867</ele>
        <time>2018-12-27T21:14:02Z</time>
      </trkpt>
      <trkpt lat="36.571350" lon="-116.914980">
        <ele>-71.981</ele>
        <time>2018-12-27T21:14:22Z</time>
      </trkpt>
      <trkpt lat="36.571180" lon="-116.914710">
        <ele>-71.919</ele>
        <time>2018-12-27T21:14:42Z</time>
      </trkpt>
      <trkpt lat="36.571110" lon="-116.914590">
        <ele>-71.808</ele>
        <time>2018-12-27T21:15:02Z</time>
      </trkpt>
      <trkpt lat="36.570970" lon="-116.914350">
        <ele>-71.659</ele>
        <time>2018-12-27T21:15:22Z</time>
      </trkpt>
      <trkpt lat="36.570910" lon="-116.914230">
        <ele>-71.597</ele>
        <time>2018-12-27T21:15:42Z</time>
      </trkpt>
      <trkpt lat="36.570840" lon="-116.914080">
        <ele>-71.482</ele>
        <time>2018-12-27T21:16:02Z</time>
      </trkpt>
      <trkpt lat="36.570710" lon="-116.913760">
        <ele>-71.283</ele>
        <time>2018-12-27T21:16:22Z</time>
      </trkpt>
      <trkpt lat="36.570640" lon="-116.913580">
        <ele>-71.287</ele>
        <time>2018-12-27T21:16:42Z</time>
      </trkpt>
      <trkpt lat="36.570590" lon="-116.913430">
        <ele>-71.176</ele>
        <time>2018-12-27T21:17:02Z</time>
      </trkpt>
      <trkpt lat="36.570550" lon="-116.913300">
        <ele>-71.115</ele>
        <time>2018-12-27T21:17:22Z</time>
      </trkpt>
      <trkpt lat="36.570280" lon="-116.912380">
        <ele>-71.045</ele>
        <time>2018-12-27T21:17:42Z</time>
      </trkpt>
      <trkpt lat="36.570180" lon="-116.912120">
        <ele>-71.085</ele>
        <time>2018-12-27T21:18:02Z</time>
      </trkpt>
      <trkpt lat="36.570130" lon="-116.911980">
        <ele>-70.989</ele>
        <time>2018-12-27T21:18:22Z</time>
      </trkpt>
      <trkpt lat="36.570040" lon="-116.911810">
        <ele>-70.717</ele>
        <time>2018-12-27T21:18:42Z</time>
      </trkpt>
      <trkpt lat="36.569970" lon="-116.911650">
        <ele>-70.508</ele>
        <time>2018-12-27T21:19:02Z</time>
      </trkpt>
      <trkpt lat="36.569800" lon="-116.911350">
        <ele>-70.361</ele>
        <time>2018-12-27T21:19:22Z</time>
      </trkpt>
      <trkpt lat="36.569540" lon="-116.910960">
        <ele>-69.949</ele>
        <time>2018-12-27T21:19:42Z</time>
      </trkpt>
      <trkpt lat="36.569450" lon="-116.910840">
        <ele>-70.074</ele>
        <time>2018-12-27T21:20:02Z</time>
      </trkpt>
      <trkpt lat="36.569200" lon="-116.910530">
        <ele>-70.055</ele>
        <time>2018-12-27T21:20:22Z</time>
      </trkpt>
      <trkpt lat="36.569040" lon="-116.910350">
        <ele>-69.939</ele>
        <time>2018-12-27T21:20:42Z</time>
      </trkpt>
      <trkpt lat="36.568900" lon="-116.910190">
        <ele>-70.058</ele>
        <time>2018-12-27T21:21:02Z</time>
      </trkpt>
      <trkpt lat="36.568700" lon="-116.909980">
        <ele>-70.177</ele>
        <time>2018-12-27T21:21:22Z</time>
      </trkpt>
      <trkpt lat="36.568490" lon="-116.909760">
        <ele>-70.157</ele>
        <time>2018-12-27T21:21:42Z</time>
      </trkpt>
      <trkpt lat="36.568370" lon="-116.909660">
        <ele>-70.078</ele>
        <time>2018-12-27T21:22:02Z</time>
      </trkpt>
      <trkpt lat="36.568260" lon="-116.909560">
        <ele>-69.933</ele>
        <time>2018-12-27T21:22:22Z</time>
      </trkpt>
      <trkpt lat="36.568130" lon="-116.909460">
        <ele>-69.826</ele>
        <time>2018-12-27T21:22:42Z</time>
      </trkpt>
      <trkpt lat="36.567940" lon="-116.909320">
        <ele>-69.608</ele>
        <time>2018-12-27T21:23:02Z</time>
      </trkpt>
      <trkpt lat="36.567810" lon="-116.909240">
        <ele>-69.570</ele>
        <time>2018-12-27T21:23:22Z</time>
      </trkpt>
      <trkpt lat="36.567720" lon="-116.909180">
        <ele>-69.438</ele>
        <time>2018-12-27T21:23:42Z</time>
      </trkpt>
      <trkpt lat="36.567420" lon="-116.909010">
        <ele>-69.123</ele>
        <time>2018-12-27T21:24:02Z</time>
      </trkpt>
      <trkpt lat="36.567280" lon="-116.908930">
        <ele>-69.054</ele>
        <time>2018-12-27T21:24:22Z</time>
      </trkpt>
      <trkpt lat="36.566920" lon="-116.908770">
        <ele>-68.988</ele>
        <time>2018-12-27T21:24:42Z</time>
      </trkpt>
      <trkpt lat="36.566460" lon="-116.908610">
        <ele>-68.737</ele>
        <time>2018-12-27T21:25:02Z</time>
      </trkpt>
      <trkpt lat="36.565930" lon="-116.908440">
        <ele>-68.716</ele>
        <time>2018-12-27T21:25:22Z</time>
      </trkpt>
      <trkpt lat="36.565690" lon="-116.908360">
        <ele>-68.676</ele>
        <time>2018-12-27T21:25:42Z</time>
      </trkpt>
      <trkpt lat="36.565470" lon="-116.908280">
        <ele>-68.673</ele>
        <time>2018-12-27T21:26:02Z</time>
      </trkpt>
      <trkpt lat="36.565220" lon="-116.908180">
        <ele>-68.585</ele>
        <time>2018-12-27T21:26:22Z</time>
      </trkpt>
      <trkpt lat="36.565120" lon="-116.908140">
        <ele>-68.513</ele>
        <time>2018-12-27T21:26:42Z</time>
      </trkpt>
      <trkpt lat="36.564790" lon="-116.907990">
        <ele>-68.408</ele>
        <time>2018-12-27T21:27:02Z</time>
      </trkpt>
      <trkpt lat="36.564560" lon="-116.907850">
        <ele>-68.480</ele>
        <time>2018-12-27T21:27:22Z</time>
      </trkpt>
      <trkpt lat="36.564430" lon="-116.907760">
        <ele>-68.478</ele>
        <time>2018-12-27T21:27:42Z</time>
      </trkpt>
      <trkpt lat="36.564360" lon="-116.907710">
        <ele>-68.463</ele>
        <time>2018-12-27T21:28:02Z</time>
      </trkpt>
      <trkpt lat="36.564200" lon="-116.907580">
        <ele>-68.334</ele>
        <time>2018-12-27T21:28:22Z</time>
      </trkpt>
      <trkpt lat="36.563770" lon="-116.907220">
        <ele>-68.488</ele>
        <time>2018-12-27T21:28:42Z</time>
      </trkpt>
      <trkpt lat="36.563470" lon="-116.906930">
        <ele>-68.447</ele>
        <time>2018-12-27T21:29:02Z</time>
      </trkpt>
      <trkpt lat="36.563360" lon="-116.906830">
        <ele>-68.526</ele>
        <time>2018-12-27T21:29:22Z</time>
      </trkpt>
      <trkpt lat="36.563050" lon="-116.906540">
        <ele>-68.696</ele>
        <time>2018-12-27T21:29:42Z</time>
      </trkpt>
      <trkpt lat="36.562780" lon="-116.906260">
        <ele>-68.655</ele>
        <time>2018-12-27T21:30:02Z</time>
      </trkpt>
      <trkpt lat="36.562610" lon="-116.906070">
        <ele>-68.607</ele>
        <time>2018-12-27T21:30:22Z</time>
      </trkpt>
      <trkpt lat="36.562310" lon="-116.905720">
        <ele>-68.617</ele>
        <time>2018-12-27T21:30:42Z</time>
      </trkpt>
      <trkpt lat="36.562180" lon="-116.905550">
        <ele>-68.608</ele>
        <time>2018-12-27T21:31:02Z</time>
      </trkpt>
      <trkpt lat="36.562000" lon="-116.905310">
        <ele>-68.688</ele>
        <time>2018-12-27T21:31:22Z</time>
      </trkpt>
      <trkpt lat="36.561850" lon="-116.905070">
        <ele>-68.686</ele>
        <time>2018-12-27T21:31:42Z</time>
      </trkpt>
      <trkpt lat="36.561680" lon="-116.904800">
        <ele>-68.761</ele>
        <time>2018-12-27T21:32:02Z</time>
      </trkpt>
      <trkpt lat="36.561580" lon="-116.904650">
        <ele>-68.752</ele>
        <time>2018-12-27T21:32:22Z</time>
      </trkpt>
      <trkpt lat="36.561490" lon="-116.904480">
        <ele>-68.776</ele>
        <time>2018-12-27T21:32:42Z</time>
      </trkpt>
      <trkpt lat="36.561430" lon="-116.904380">
        <ele>-68.725</ele>
        <time>2018-12-27T21:33:02Z</time>
      </trkpt>
      <trkpt lat="36.561360" lon="-116.904240">
        <ele>-68.734</ele>
        <time>2018-12-27T21:33:22Z</time>
      </trkpt>
      <trkpt lat="36.561190" lon="-116.903910">
        <ele>-68.784</ele>
        <time>2018-12-27T21:33:42Z</time>
      </trkpt>
      <trkpt lat="36.561000" lon="-116.903530">
        <ele>-68.744</ele>
        <time>2018-12-27T21:34:02Z</time>
      </trkpt>
      <trkpt lat="36.560800" lon="-116.903130">
        <ele>-68.805</ele>
        <time>2018-12-27T21:34:22Z</time>
      </trkpt>
      <trkpt lat="36.560430" lon="-116.902370">
        <ele>-69.115</ele>
        <time>2018-12-27T21:34:42Z</time>
      </trkpt>
      <trkpt lat="36.560340" lon="-116.902190">
        <ele>-69.208</ele>
        <time>2018-12-27T21:35:02Z</time>
      </trkpt>
      <trkpt lat="36.560050" lon="-116.901600">
        <ele>-69.567</ele>
        <time>2018-12-27T21:35:22Z</time>
      </trkpt>
      <trkpt lat="36.559770" lon="-116.901020">
        <ele>-69.915</ele>
        <time>2018-12-27T21:35:42Z</time>
      </trkpt>
      <trkpt lat="36.559580" lon="-116.900620">
        <ele>-70.470</ele>
        <time>2018-12-27T21:36:02Z</time>
      </trkpt>
      <trkpt lat="36.559430" lon="-116.900310">
        <ele>-70.891</ele>
        <time>2018-12-27T21:36:22Z</time>
      </trkpt>
      <trkpt lat="36.559180" lon="-116.899770">
        <ele>-71.515</ele>
        <time>2018-12-27T21:36:42Z</time>
      </trkpt>
      <trkpt lat="36.558980" lon="-116.899260">
        <ele>-71.514</ele>
        <time>2018-12-27T21:37:02Z</time>
      </trkpt>
      <trkpt lat="36.558790" lon="-116.898790">
        <ele>-71.313</ele>
        <time>2018-12-27T21:37:22Z</time>
      </trkpt>
      <trkpt lat="36.558670" lon="-116.898470">
        <ele>-71.133</ele>
        <time>2018-12-27T21:37:42Z</time>
      </trkpt>
      <trkpt lat="36.558510" lon="-116.898050">
        <ele>-71.065</ele>
        <time>2018-12-27T21:38:02Z</time>
      </trkpt>
      <trkpt lat="36.558320" lon="-116.897510">
        <ele>-70.968</ele>
        <time>2018-12-27T21:38:22Z</time>
      </trkpt>
      <trkpt lat="36.558110" lon="-116.896950">
        <ele>-70.514</ele>
        <time>2018-12-27T21:38:42Z</time>
      </trkpt>
      <trkpt lat="36.557890" lon="-116.896340">
        <ele>-70.108</ele>
        <time>2018-12-27T21:39:02Z</time>
      </trkpt>
      <trkpt lat="36.557760" lon="-116.895990">
        <ele>-69.969</ele>
        <time>2018-12-27T21:39:22Z</time>
      </trkpt>
      <trkpt lat="36.557620" lon="-116.895680">
        <ele>-69.897</ele>
        <time>2018-12-27T21:39:42Z</time>
      </trkpt>
      <trkpt lat="36.557440" lon="-116.895340">
        <ele>-69.682</ele>
        <time>2018-12-27T21:40:02Z</time>
      </trkpt>
      <trkpt lat="36.557230" lon="-116.895010">
        <ele>-69.463</ele>
        <time>2018-12-27T21:40:22Z</time>
      </trkpt>
      <trkpt lat="36.557090" lon="-116.894810">
        <ele>-69.287</ele>
        <time>2018-12-27T21:40:42Z</time>
      </trkpt>
      <trkpt lat="36.556980" lon="-116.894680">
        <ele>-69.176</ele>
        <time>2018-12-27T21:41:02Z</time>
      </trkpt>
      <trkpt lat="36.556770" lon="-116.894440">
        <ele>-69.025</ele>
        <time>2018-12-27T21:41:22Z</time>
      </trkpt>
      <trkpt lat="36.556600" lon="-116.894280">
        <ele>-69.015</ele>
        <time>2018-12-27T21:41:42Z</time>
      </trkpt>
      <trkpt lat="36.556470" lon="-116.894160">
        <ele>-69.014</ele>
        <time>2018-12-27T21:42:02Z</time>
      </trkpt>
      <trkpt lat="36.556260" lon="-116.894000">
        <ele>-69.054</ele>
        <time>2018-12-27T21:42:22Z</time>
      </trkpt>
      <trkpt lat="36.556120" lon="-116.893890">
        <ele>-68.909</ele>
        <time>2018-12-27T21:42:42Z</time>
      </trkpt>
      <trkpt lat="36.555990" lon="-116.893810">
        <ele>-68.908</ele>
        <time>2018-12-27T21:43:02Z</time>
      </trkpt>
      <trkpt lat="36.555910" lon="-116.893760">
        <ele>-68.824</ele>
        <time>2018-12-27T21:43:22Z</time>
      </trkpt>
      <trkpt lat="36.555690" lon="-116.893630">
        <ele>-68.642</ele>
        <time>2018-12-27T21:43:42Z</time>
      </trkpt>
      <trkpt lat="36.555440" lon="-116.893490">
        <ele>-68.477</ele>
        <time>2018-12-27T21:44:02Z</time>
      </trkpt>
      <trkpt lat="36.554880" lon="-116.893210">
        <ele>-68.278</ele>
        <time>2018-12-27T21:44:22Z</time>
      </trkpt>
      <trkpt lat="36.554220" lon="-116.892900">
        <ele>-68.472</ele>
        <time>2018-12-27T21:44:42Z</time>
      </trkpt>
      <trkpt lat="36.554030" lon="-116.892820">
        <ele>-68.661</ele>
        <time>2018-12-27T21:45:02Z</time>
      </trkpt>
      <trkpt lat="36.553870" lon="-116.892770">
        <ele>-68.850</ele>
        <time>2018-12-27T21:45:22Z</time>
      </trkpt>
      <trkpt lat="36.553560" lon="-116.892680">
        <ele>-69.050</ele>
        <time>2018-12-27T21:45:42Z</time>
      </trkpt>
      <trkpt lat="36.553300" lon="-116.892620">
        <ele>-69.014</ele>
        <time>2018-12-27T21:46:02Z</time>
      </trkpt>
      <trkpt lat="36.553010" lon="-116.892570">
        <ele>-68.954</ele>
        <time>2018-12-27T21:46:22Z</time>
      </trkpt>
      <trkpt lat="36.552740" lon="-116.892530">
        <ele>-68.909</ele>
        <time>2018-12-27T21:46:42Z</time>
      </trkpt>
      <trkpt lat="36.551700" lon="-116.892360">
        <ele>-68.308</ele>
        <time>2018-12-27T21:47:02Z</time>
      </trkpt>
      <trkpt lat="36.551300" lon="-116.892270">
        <ele>-68.124</ele>
        <time>2018-12-27T21:47:22Z</time>
      </trkpt>
      <trkpt lat="36.551060" lon="-116.892210">
        <ele>-67.912</ele>
        <time>2018-12-27T21:47:42Z</time>
      </trkpt>
      <trkpt lat="36.550840" lon="-116.892130">
        <ele>-67.837</ele>
        <time>2018-12-27T21:48:02Z</time>
      </trkpt>
      <trkpt lat="36.550400" lon="-116.891970">
        <ele>-67.778</ele>
        <time>2018-12-27T21:48:22Z</time>
      </trkpt>
      <trkpt lat="36.550200" lon="-116.891880">
        <ele>-67.822</ele>
        <time>2018-12-27T21:48:42Z</time>
      </trkpt>
      <trkpt lat="36.550080" lon="-116.891810">
        <ele>-67.721</ele>
        <time>2018-12-27T21:49:02Z</time>
      </trkpt>
      <trkpt lat="36.549690" lon="-116.891610">
        <ele>-67.680</ele>
        <time>2018-12-27T21:49:22Z</time>
      </trkpt>
      <trkpt lat="36.549470" lon="-116.891500">
        <ele>-67.620</ele>
        <time>2018-12-27T21:49:42Z</time>
      </trkpt>
      <trkpt lat="36.549330" lon="-116.891410">
        <ele>-67.527</ele>
        <time>2018-12-27T21:50:02Z</time>
      </trkpt>
      <trkpt lat="36.549000" lon="-116.891200">
        <ele>-67.468</ele>
        <time>2018-12-27T21:50:22Z</time>
      </trkpt>
      <trkpt lat="36.548710" lon="-116.891020">
        <ele>-67.514</ele>
        <time>2018-12-27T21:50:42Z</time>
      </trkpt>
      <trkpt lat="36.547960" lon="-116.890520">
        <ele>-67.508</ele>
        <time>2018-12-27T21:51:02Z</time>
      </trkpt>
      <trkpt lat="36.547050" lon="-116.889860">
        <ele>-67.685</ele>
        <time>2018-12-27T21:51:22Z</time>
      </trkpt>
      <trkpt lat="36.546680" lon="-116.889560">
        <ele>-67.793</ele>
        <time>2018-12-27T21:51:42Z</time>
      </trkpt>
      <trkpt lat="36.546030" lon="-116.888970">
        <ele>-68.258</ele>
        <time>2018-12-27T21:52:02Z</time>
      </trkpt>
      <trkpt lat="36.545620" lon="-116.888570">
        <ele>-68.219</ele>
        <time>2018-12-27T21:52:22Z</time>
      </trkpt>
      <trkpt lat="36.545270" lon="-116.888190">
        <ele>-68.273</ele>
        <time>2018-12-27T21:52:42Z</time>
      </trkpt>
      <trkpt lat="36.544840" lon="-116.887720">
        <ele>-68.212</ele>
        <time>2018-12-27T21:53:02Z</time>
      </trkpt>
      <trkpt lat="36.544580" lon="-116.887430">
        <ele>-68.281</ele>
        <time>2018-12-27T21:53:22Z</time>
      </trkpt>
      <trkpt lat="36.544330" lon="-116.887160">
        <ele>-68.311</ele>
        <time>2018-12-27T21:53:42Z</time>
      </trkpt>
      <trkpt lat="36.544130" lon="-116.886950">
        <ele>-68.493</ele>
        <time>2018-12-27T21:54:02Z</time>
      </trkpt>
      <trkpt lat="36.544000" lon="-116.886820">
        <ele>-68.465</ele>
        <time>2018-12-27T21:54:22Z</time>
      </trkpt>
      <trkpt lat="36.543890" lon="-116.886720">
        <ele>-68.521</ele>
        <time>2018-12-27T21:54:42Z</time>
      </trkpt>
      <trkpt lat="36.543670" lon="-116.886530">
        <ele>-68.608</ele>
        <time>2018-12-27T21:55:02Z</time>
      </trkpt>
      <trkpt lat="36.543450" lon="-116.886370">
        <ele>-68.832</ele>
        <time>2018-12-27T21:55:22Z</time>
      </trkpt>
      <trkpt lat="36.543260" lon="-116.886220">
        <ele>-69.040</ele>
        <time>2018-12-27T21:55:42Z</time>
      </trkpt>
      <trkpt lat="36.543000" lon="-116.886040">
        <ele>-69.385</ele>
        <time>2018-12-27T21:56:02Z</time>
      </trkpt>
      <trkpt lat="36.542720" lon="-116.885870">
        <ele>-69.486</ele>
        <time>2018-12-27T21:56:22Z</time>
      </trkpt>
      <trkpt lat="36.542530" lon="-116.885760">
        <ele>-69.430</ele>
        <time>2018-12-27T21:56:42Z</time>
      </trkpt>
      <trkpt lat="36.542360" lon="-116.885670">
        <ele>-69.539</ele>
        <time>2018-12-27T21:57:02Z</time>
      </trkpt>
      <trkpt lat="36.542140" lon="-116.885560">
        <ele>-69.778</ele>
        <time>2018-12-27T21:57:22Z</time>
      </trkpt>
      <trkpt lat="36.541850" lon="-116.885440">
        <ele>-69.948</ele>
        <time>2018-12-27T21:57:42Z</time>
      </trkpt>
      <trkpt lat="36.541480" lon="-116.885300">
        <ele>-70.281</ele>
        <time>2018-12-27T21:58:02Z</time>
      </trkpt>
      <trkpt lat="36.541190" lon="-116.885200">
        <ele>-70.461</ele>
        <time>2018-12-27T21:58:22Z</time>
      </trkpt>
      <trkpt lat="36.541010" lon="-116.885160">
        <ele>-70.617</ele>
        <time>2018-12-27T21:58:42Z</time>
      </trkpt>
      <trkpt lat="36.539530" lon="-116.884770">
        <ele>-70.808</ele>
        <time>2018-12-27T21:59:02Z</time>
      </trkpt>
      <trkpt lat="36.536830" lon="-116.884070">
        <ele>-70.411</ele>
        <time>2018-12-27T21:59:22Z</time>
      </trkpt>
      <trkpt lat="36.536030" lon="-116.883870">
        <ele>-70.289</ele>
        <time>2018-12-27T21:59:42Z</time>
      </trkpt>
      <trkpt lat="36.535640" lon="-116.883760">
        <ele>-70.014</ele>
        <time>2018-12-27T22:00:02Z</time>
      </trkpt>
      <trkpt lat="36.535260" lon="-116.883660">
        <ele>-69.995</ele>
        <time>2018-12-27T22:00:22Z</time>
      </trkpt>
      <trkpt lat="36.534710" lon="-116.883500">
        <ele>-69.869</ele>
        <time>2018-12-27T22:00:42Z</time>
      </trkpt>
      <trkpt lat="36.534460" lon="-116.883410">
        <ele>-69.898</ele>
        <time>2018-12-27T22:01:02Z</time>
      </trkpt>
      <trkpt lat="36.534250" lon="-116.883330">
        <ele>-69.897</ele>
        <time>2018-12-27T22:01:22Z</time>
      </trkpt>
      <trkpt lat="36.532850" lon="-116.882810">
        <ele>-70.047</ele>
        <time>2018-12-27T22:01:42Z</time>
      </trkpt>
      <trkpt lat="36.532720" lon="-116.882770">
        <ele>-70.188</ele>
        <time>2018-12-27T22:02:02Z</time>
      </trkpt>
      <trkpt lat="36.532640" lon="-116.882750">
        <ele>-70.224</ele>
        <time>2018-12-27T22:02:22Z</time>
      </trkpt>
      <trkpt lat="36.532540" lon="-116.882720">
        <ele>-70.126</ele>
        <time>2018-12-27T22:02:42Z</time>
      </trkpt>
      <trkpt lat="36.532310" lon="-116.882660">
        <ele>-70.008</ele>
        <time>2018-12-27T22:03:02Z</time>
      </trkpt>
      <trkpt lat="36.531850" lon="-116.882590">
        <ele>-69.761</ele>
        <time>2018-12-27T22:03:22Z</time>
      </trkpt>
      <trkpt lat="36.531610" lon="-116.882570">
        <ele>-69.519</ele>
        <time>2018-12-27T22:03:42Z</time>
      </trkpt>
      <trkpt lat="36.531400" lon="-116.882560">
        <ele>-69.324</ele>
        <time>2018-12-27T22:04:02Z</time>
      </trkpt>
      <trkpt lat="36.531000" lon="-116.882550">
        <ele>-68.825</ele>
        <time>2018-12-27T22:04:22Z</time>
      </trkpt>
      <trkpt lat="36.530690" lon="-116.882550">
        <ele>-68.379</ele>
        <time>2018-12-27T22:04:42Z</time>
      </trkpt>
      <trkpt lat="36.530480" lon="-116.882570">
        <ele>-68.148</ele>
        <time>2018-12-27T22:05:02Z</time>
      </trkpt>
      <trkpt lat="36.530320" lon="-116.882580">
        <ele>-67.987</ele>
        <time>2018-12-27T22:05:22Z</time>
      </trkpt>
      <trkpt lat="36.530000" lon="-116.882620">
        <ele>-67.557</ele>
        <time>2018-12-27T22:05:42Z</time>
      </trkpt>
      <trkpt lat="36.529420" lon="-116.882690">
        <ele>-66.848</ele>
        <time>2018-12-27T22:06:02Z</time>
      </trkpt>
      <trkpt lat="36.528900" lon="-116.882760">
        <ele>-66.161</ele>
        <time>2018-12-27T22:06:22Z</time>
      </trkpt>
      <trkpt lat="36.528530" lon="-116.882810">
        <ele>-65.617</ele>
        <time>2018-12-27T22:06:42Z</time>
      </trkpt>
      <trkpt lat="36.528170" lon="-116.882850">
        <ele>-65.008</ele>
        <time>2018-12-27T22:07:02Z</time>
      </trkpt>
      <trkpt lat="36.527970" lon="-116.882860">
        <ele>-64.717</ele>
        <time>2018-12-27T22:07:22Z</time>
      </trkpt>
      <trkpt lat="36.527710" lon="-116.882880">
        <ele>-64.455</ele>
        <time>2018-12-27T22:07:42Z</time>
      </trkpt>
      <trkpt lat="36.527230" lon="-116.882900">
        <ele>-63.930</ele>
        <time>2018-12-27T22:08:02Z</time>
      </trkpt>
      <trkpt lat="36.526620" lon="-116.882900">
        <ele>-63.411</ele>
        <time>2018-12-27T22:08:22Z</time>
      </trkpt>
      <trkpt lat="36.526390" lon="-116.882890">
        <ele>-63.345</ele>
        <time>2018-12-27T22:08:42Z</time>
      </trkpt>
      <trkpt lat="36.525790" lon="-116.882840">
        <ele>-63.234</ele>
        <time>2018-12-27T22:09:02Z</time>
      </trkpt>
      <trkpt lat="36.525320" lon="-116.882800">
        <ele>-63.523</ele>
        <time>2018-12-27T22:09:22Z</time>
      </trkpt>
      <trkpt lat="36.524380" lon="-116.882700">
        <ele>-64.153</ele>
        <time>2018-12-27T22:09:42Z</time>
      </trkpt>
      <trkpt lat="36.524130" lon="-116.882670">
        <ele>-64.234</ele>
        <time>2018-12-27T22:10:02Z</time>
      </trkpt>
      <trkpt lat="36.523650" lon="-116.882610">
        <ele>-64.455</ele>
        <time>2018-12-27T22:10:22Z</time>
      </trkpt>
      <trkpt lat="36.523290" lon="-116.882550">
        <ele>-64.410</ele>
        <time>2018-12-27T22:10:42Z</time>
      </trkpt>
      <trkpt lat="36.522980" lon="-116.882500">
        <ele>-64.508</ele>
        <time>2018-12-27T22:11:02Z</time>
      </trkpt>
      <trkpt lat="36.522700" lon="-116.882440">
        <ele>-64.536</ele>
        <time>2018-12-27T22:11:22Z</time>
      </trkpt>
      <trkpt lat="36.522250" lon="-116.882340">
        <ele>-64.694</ele>
        <time>2018-12-27T22:11:42Z</time>
      </trkpt>
      <trkpt lat="36.522060" lon="-116.882290">
        <ele>-64.659</ele>
        <time>2018-12-27T22:12:02Z</time>
      </trkpt>
      <trkpt lat="36.521470" lon="-116.882130">
        <ele>-64.530</ele>
        <time>2018-12-27T22:12:22Z</time>
      </trkpt>
      <trkpt lat="36.520780" lon="-116.881930">
        <ele>-64.544</ele>
        <time>2018-12-27T22:12:42Z</time>
      </trkpt>
      <trkpt lat="36.520290" lon="-116.881790">
        <ele>-64.443</ele>
        <time>2018-12-27T22:13:02Z</time>
      </trkpt>
      <trkpt lat="36.519680" lon="-116.881610">
        <ele>-64.222</ele>
        <time>2018-12-27T22:13:22Z</time>
      </trkpt>
      <trkpt lat="36.519390" lon="-116.881540">
        <ele>-64.272</ele>
        <time>2018-12-27T22:13:42Z</time>
      </trkpt>
      <trkpt lat="36.519180" lon="-116.881500">
        <ele>-64.269</ele>
        <time>2018-12-27T22:14:02Z</time>
      </trkpt>
      <trkpt lat="36.518840" lon="-116.881440">
        <ele>-64.304</ele>
        <time>2018-12-27T22:14:22Z</time>
      </trkpt>
      <trkpt lat="36.518620" lon="-116.881420">
        <ele>-64.324</ele>
        <time>2018-12-27T22:14:42Z</time>
      </trkpt>
      <trkpt lat="36.518400" lon="-116.881400">
        <ele>-64.208</ele>
        <time>2018-12-27T22:15:02Z</time>
      </trkpt>
      <trkpt lat="36.517870" lon="-116.881400">
        <ele>-63.979</ele>
        <time>2018-12-27T22:15:22Z</time>
      </trkpt>
      <trkpt lat="36.517530" lon="-116.881420">
        <ele>-63.567</ele>
        <time>2018-12-27T22:15:42Z</time>
      </trkpt>
      <trkpt lat="36.517280" lon="-116.881450">
        <ele>-63.322</ele>
        <time>2018-12-27T22:16:02Z</time>
      </trkpt>
      <trkpt lat="36.516800" lon="-116.881520">
        <ele>-62.893</ele>
        <time>2018-12-27T22:16:22Z</time>
      </trkpt>
      <trkpt lat="36.515840" lon="-116.881760">
        <ele>-62.847</ele>
        <time>2018-12-27T22:16:42Z</time>
      </trkpt>
      <trkpt lat="36.515620" lon="-116.881800">
        <ele>-63.076</ele>
        <time>2018-12-27T22:17:02Z</time>
      </trkpt>
      <trkpt lat="36.515540" lon="-116.881820">
        <ele>-63.275</ele>
        <time>2018-12-27T22:17:22Z</time>
      </trkpt>
      <trkpt lat="36.515340" lon="-116.881850">
        <ele>-63.375</ele>
        <time>2018-12-27T22:17:42Z</time>
      </trkpt>
      <trkpt lat="36.515020" lon="-116.881900">
        <ele>-63.577</ele>
        <time>2018-12-27T22:18:02Z</time>
      </trkpt>
      <trkpt lat="36.514720" lon="-116.881920">
        <ele>-63.561</ele>
        <time>2018-12-27T22:18:22Z</time>
      </trkpt>
      <trkpt lat="36.514400" lon="-116.881910">
        <ele>-63.527</ele>
        <time>2018-12-27T22:18:42Z</time>
      </trkpt>
      <trkpt lat="36.514170" lon="-116.881890">
        <ele>-63.508</ele>
        <time>2018-12-27T22:19:02Z</time>
      </trkpt>
      <trkpt lat="36.514000" lon="-116.881870">
        <ele>-63.540</ele>
        <time>2018-12-27T22:19:22Z</time>
      </trkpt>
      <trkpt lat="36.513530" lon="-116.881780">
        <ele>-63.758</ele>
        <time>2018-12-27T22:19:42Z</time>
      </trkpt>
      <trkpt lat="36.513370" lon="-116.881730">
        <ele>-63.633</ele>
        <time>2018-12-27T22:20:02Z</time>
      </trkpt>
      <trkpt lat="36.513170" lon="-116.881680">
        <ele>-63.674</ele>
        <time>2018-12-27T22:20:22Z</time>
      </trkpt>
      <trkpt lat="36.512660" lon="-116.881510">
        <ele>-63.848</ele>
        <time>2018-12-27T22:20:42Z</time>
      </trkpt>
      <trkpt lat="36.512230" lon="-116.881340">
        <ele>-63.857</ele>
        <time>2018-12-27T22:21:02Z</time>
      </trkpt>
      <trkpt lat="36.511770" lon="-116.881140">
        <ele>-64.026</ele>
        <time>2018-12-27T22:21:22Z</time>
      </trkpt>
      <trkpt lat="36.511430" lon="-116.880990">
        <ele>-64.266</ele>
        <time>2018-12-27T22:21:42Z</time>
      </trkpt>
      <trkpt lat="36.510930" lon="-116.880730">
        <ele>-63.875</ele>
        <time>2018-12-27T22:22:02Z</time>
      </trkpt>
      <trkpt lat="36.510590" lon="-116.880550">
        <ele>-63.628</ele>
        <time>2018-12-27T22:22:22Z</time>
      </trkpt>
      <trkpt lat="36.510170" lon="-116.880310">
        <ele>-63.420</ele>
        <time>2018-12-27T22:22:42Z</time>
      </trkpt>
      <trkpt lat="36.509370" lon="-116.879860">
        <ele>-62.808</ele>
        <time>2018-12-27T22:23:02Z</time>
      </trkpt>
      <trkpt lat="36.508550" lon="-116.879400">
        <ele>-63.760</ele>
        <time>2018-12-27T22:23:22Z</time>
      </trkpt>
      <trkpt lat="36.507820" lon="-116.878990">
        <ele>-63.488</ele>
        <time>2018-12-27T22:23:42Z</time>
      </trkpt>
      <trkpt lat="36.506790" lon="-116.878400">
        <ele>-63.233</ele>
        <time>2018-12-27T22:24:02Z</time>
      </trkpt>
      <trkpt lat="36.506170" lon="-116.878050">
        <ele>-62.744</ele>
        <time>2018-12-27T22:24:22Z</time>
      </trkpt>
      <trkpt lat="36.505860" lon="-116.877870">
        <ele>-62.598</ele>
        <time>2018-12-27T22:24:42Z</time>
      </trkpt>
      <trkpt lat="36.505680" lon="-116.877770">
        <ele>-62.347</ele>
        <time>2018-12-27T22:25:02Z</time>
      </trkpt>
      <trkpt lat="36.505570" lon="-116.877710">
        <ele>-62.116</ele>
        <time>2018-12-27T22:25:22Z</time>
      </trkpt>
      <trkpt lat="36.505170" lon="-116.877450">
        <ele>-61.386</ele>
        <time>2018-12-27T22:25:42Z</time>
      </trkpt>
      <trkpt lat="36.504840" lon="-116.877230">
        <ele>-61.051</ele>
        <time>2018-12-27T22:26:02Z</time>
      </trkpt>
      <trkpt lat="36.504450" lon="-116.876930">
        <ele>-60.601</ele>
        <time>2018-12-27T22:26:22Z</time>
      </trkpt>
      <trkpt lat="36.504130" lon="-116.876670">
        <ele>-60.211</ele>
        <time>2018-12-27T22:26:42Z</time>
      </trkpt>
      <trkpt lat="36.503630" lon="-116.876270">
        <ele>-59.708</ele>
        <time>2018-12-27T22:27:02Z</time>
      </trkpt>
      <trkpt lat="36.503410" lon="-116.876110">
        <ele>-59.958</ele>
        <time>2018-12-27T22:27:22Z</time>
      </trkpt>
      <trkpt lat="36.503210" lon="-116.875980">
        <ele>-60.256</ele>
        <time>2018-12-27T22:27:42Z</time>
      </trkpt>
      <trkpt lat="36.502870" lon="-116.875800">
        <ele>-60.421</ele>
        <time>2018-12-27T22:28:02Z</time>
      </trkpt>
      <trkpt lat="36.502620" lon="-116.875690">
        <ele>-60.642</ele>
        <time>2018-12-27T22:28:22Z</time>
      </trkpt>
      <trkpt lat="36.502290" lon="-116.875570">
        <ele>-60.946</ele>
        <time>2018-12-27T22:28:42Z</time>
      </trkpt>
      <trkpt lat="36.502210" lon="-116.875550">
        <ele>-60.925</ele>
        <time>2018-12-27T22:29:02Z</time>
      </trkpt>
      <trkpt lat="36.501870" lon="-116.875450">
        <ele>-61.124</ele>
        <time>2018-12-27T22:29:22Z</time>
      </trkpt>
      <trkpt lat="36.501700" lon="-116.875420">
        <ele>-61.144</ele>
        <time>2018-12-27T22:29:42Z</time>
      </trkpt>
      <trkpt lat="36.501280" lon="-116.875380">
        <ele>-60.969</ele>
        <time>2018-12-27T22:30:02Z</time>
      </trkpt>
      <trkpt lat="36.500480" lon="-116.875340">
        <ele>-61.204</ele>
        <time>2018-12-27T22:30:22Z</time>
      </trkpt>
      <trkpt lat="36.499950" lon="-116.875340">
        <ele>-60.424</ele>
        <time>2018-12-27T22:30:42Z</time>
      </trkpt>
      <trkpt lat="36.499610" lon="-116.875330">
        <ele>-59.708</ele>
        <time>2018-12-27T22:31:02Z</time>
      </trkpt>
      <trkpt lat="36.499300" lon="-116.875310">
        <ele>-59.249</ele>
        <time>2018-12-27T22:31:22Z</time>
      </trkpt>
      <trkpt lat="36.498960" lon="-116.875260">
        <ele>-58.887</ele>
        <time>2018-12-27T22:31:42Z</time>
      </trkpt>
      <trkpt lat="36.498790" lon="-116.875240">
        <ele>-58.712</ele>
        <time>2018-12-27T22:32:02Z</time>
      </trkpt>
      <trkpt lat="36.498380" lon="-116.875150">
        <ele>-58.443</ele>
        <time>2018-12-27T22:32:22Z</time>
      </trkpt>
      <trkpt lat="36.498060" lon="-116.875070">
        <ele>-58.317</ele>
        <time>2018-12-27T22:32:42Z</time>
      </trkpt>
      <trkpt lat="36.497930" lon="-116.875030">
        <ele>-58.366</ele>
        <time>2018-12-27T22:33:02Z</time>
      </trkpt>
      <trkpt lat="36.497670" lon="-116.874940">
        <ele>-58.315</ele>
        <time>2018-12-27T22:33:22Z</time>
      </trkpt>
      <trkpt lat="36.497530" lon="-116.874880">
        <ele>-58.145</ele>
        <time>2018-12-27T22:33:42Z</time>
      </trkpt>
      <trkpt lat="36.497160" lon="-116.874720">
        <ele>-57.691</ele>
        <time>2018-12-27T22:34:02Z</time>
      </trkpt>
      <trkpt lat="36.496930" lon="-116.874610">
        <ele>-57.181</ele>
        <time>2018-12-27T22:34:22Z</time>
      </trkpt>
      <trkpt lat="36.496770" lon="-116.874520">
        <ele>-56.919</ele>
        <time>2018-12-27T22:34:42Z</time>
      </trkpt>
      <trkpt lat="36.496610" lon="-116.874440">
        <ele>-56.808</ele>
        <time>2018-12-27T22:35:02Z</time>
      </trkpt>
      <trkpt lat="36.496420" lon="-116.874320">
        <ele>-56.812</ele>
        <time>2018-12-27T22:35:22Z</time>
      </trkpt>
      <trkpt lat="36.496270" lon="-116.874220">
        <ele>-56.790</ele>
        <time>2018-12-27T22:35:42Z</time>
      </trkpt>
      <trkpt lat="36.496040" lon="-116.874060">
        <ele>-57.265</ele>
        <time>2018-12-27T22:36:02Z</time>
      </trkpt>
      <trkpt lat="36.494880" lon="-116.873210">
        <ele>-60.416</ele>
        <time>2018-12-27T22:36:22Z</time>
      </trkpt>
      <trkpt lat="36.494560" lon="-116.872970">
        <ele>-56.970</ele>
        <time>2018-12-27T22:36:42Z</time>
      </trkpt>
      <trkpt lat="36.493880" lon="-116.872470">
        <ele>-53.649</ele>
        <time>2018-12-27T22:37:02Z</time>
      </trkpt>
      <trkpt lat="36.492810" lon="-116.871660">
        <ele>-50.518</ele>
        <time>2018-12-27T22:37:22Z</time>
      </trkpt>
      <trkpt lat="36.491910" lon="-116.870980">
        <ele>-48.588</ele>
        <time>2018-12-27T22:37:42Z</time>
      </trkpt>
      <trkpt lat="36.491030" lon="-116.870330">
        <ele>-44.499</ele>
        <time>2018-12-27T22:38:02Z</time>
      </trkpt>
      <trkpt lat="36.490490" lon="-116.869920">
        <ele>-42.407</ele>
        <time>2018-12-27T22:38:22Z</time>
      </trkpt>
      <trkpt lat="36.489910" lon="-116.869490">
        <ele>-42.227</ele>
        <time>2018-12-27T22:38:42Z</time>
      </trkpt>
      <trkpt lat="36.489750" lon="-116.869380">
        <ele>-42.608</ele>
        <time>2018-12-27T22:39:02Z</time>
      </trkpt>
      <trkpt lat="36.489620" lon="-116.869290">
        <ele>-43.042</ele>
        <time>2018-12-27T22:39:22Z</time>
      </trkpt>
      <trkpt lat="36.489530" lon="-116.869240">
        <ele>-43.470</ele>
        <time>2018-12-27T22:39:42Z</time>
      </trkpt>
      <trkpt lat="36.489330" lon="-116.869110">
        <ele>-44.245</ele>
        <time>2018-12-27T22:40:02Z</time>
      </trkpt>
      <trkpt lat="36.489250" lon="-116.869070">
        <ele>-44.576</ele>
        <time>2018-12-27T22:40:22Z</time>
      </trkpt>
      <trkpt lat="36.489170" lon="-116.869030">
        <ele>-44.760</ele>
        <time>2018-12-27T22:40:42Z</time>
      </trkpt>
      <trkpt lat="36.489090" lon="-116.868990">
        <ele>-44.849</ele>
        <time>2018-12-27T22:41:02Z</time>
      </trkpt>
      <trkpt lat="36.488490" lon="-116.868760">
        <ele>-43.788</ele>
        <time>2018-12-27T22:41:22Z</time>
      </trkpt>
      <trkpt lat="36.487930" lon="-116.868550">
        <ele>-41.918</ele>
        <time>2018-12-27T22:41:42Z</time>
      </trkpt>
      <trkpt lat="36.487800" lon="-116.868510">
        <ele>-41.541</ele>
        <time>2018-12-27T22:42:02Z</time>
      </trkpt>
      <trkpt lat="36.487680" lon="-116.868480">
        <ele>-41.281</ele>
        <time>2018-12-27T22:42:22Z</time>
      </trkpt>
      <trkpt lat="36.487570" lon="-116.868460">
        <ele>-40.909</ele>
        <time>2018-12-27T22:42:42Z</time>
      </trkpt>
      <trkpt lat="36.487500" lon="-116.868450">
        <ele>-40.708</ele>
        <time>2018-12-27T22:43:02Z</time>
      </trkpt>
      <trkpt lat="36.487360" lon="-116.868440">
        <ele>-40.417</ele>
        <time>2018-12-27T22:43:22Z</time>
      </trkpt>
      <trkpt lat="36.487220" lon="-116.868440">
        <ele>-40.195</ele>
        <time>2018-12-27T22:43:42Z</time>
      </trkpt>
      <trkpt lat="36.487120" lon="-116.868450">
        <ele>-40.040</ele>
        <time>2018-12-27T22:44:02Z</time>
      </trkpt>
      <trkpt lat="36.487010" lon="-116.868460">
        <ele>-39.761</ele>
        <time>2018-12-27T22:44:22Z</time>
      </trkpt>
      <trkpt lat="36.486880" lon="-116.868490">
        <ele>-39.555</ele>
        <time>2018-12-27T22:44:42Z</time>
      </trkpt>
      <trkpt lat="36.486730" lon="-116.868540">
        <ele>-39.454</ele>
        <time>2018-12-27T22:45:02Z</time>
      </trkpt>
      <trkpt lat="36.486620" lon="-116.868580">
        <ele>-39.523</ele>
        <time>2018-12-27T22:45:22Z</time>
      </trkpt>
      <trkpt lat="36.486540" lon="-116.868620">
        <ele>-39.753</ele>
        <time>2018-12-27T22:45:42Z</time>
      </trkpt>
      <trkpt lat="36.486460" lon="-116.868670">
        <ele>-40.295</ele>
        <time>2018-12-27T22:46:02Z</time>
      </trkpt>
      <trkpt lat="36.486370" lon="-116.868720">
        <ele>-40.849</ele>
        <time>2018-12-27T22:46:22Z</time>
      </trkpt>
      <trkpt lat="36.486290" lon="-116.868770">
        <ele>-41.323</ele>
        <time>2018-12-27T22:46:42Z</time>
      </trkpt>
      <trkpt lat="36.486230" lon="-116.868810">
        <ele>-41.508</ele>
        <time>2018-12-27T22:47:02Z</time>
      </trkpt>
      <trkpt lat="36.486170" lon="-116.868850">
        <ele>-41.842</ele>
        <time>2018-12-27T22:47:22Z</time>
      </trkpt>
      <trkpt lat="36.486080" lon="-116.868930">
        <ele>-42.330</ele>
        <time>2018-12-27T22:47:42Z</time>
      </trkpt>
      <trkpt lat="36.486000" lon="-116.869010">
        <ele>-42.815</ele>
        <time>2018-12-27T22:48:02Z</time>
      </trkpt>
      <trkpt lat="36.485800" lon="-116.869220">
        <ele>-44.076</ele>
        <time>2018-12-27T22:48:22Z</time>
      </trkpt>
      <trkpt lat="36.485540" lon="-116.869540">
        <ele>-45.730</ele>
        <time>2018-12-27T22:48:42Z</time>
      </trkpt>
      <trkpt lat="36.485270" lon="-116.869830">
        <ele>-46.669</ele>
        <time>2018-12-27T22:49:02Z</time>
      </trkpt>
      <trkpt lat="36.484980" lon="-116.870110">
        <ele>-47.398</ele>
        <time>2018-12-27T22:49:22Z</time>
      </trkpt>
      <trkpt lat="36.484620" lon="-116.870420">
        <ele>-48.528</ele>
        <time>2018-12-27T22:49:42Z</time>
      </trkpt>
      <trkpt lat="36.484230" lon="-116.870730">
        <ele>-50.152</ele>
        <time>2018-12-27T22:50:02Z</time>
      </trkpt>
      <trkpt lat="36.483960" lon="-116.870940">
        <ele>-50.853</ele>
        <time>2018-12-27T22:50:22Z</time>
      </trkpt>
      <trkpt lat="36.483760" lon="-116.871090">
        <ele>-51.408</ele>
        <time>2018-12-27T22:50:42Z</time>
      </trkpt>
      <trkpt lat="36.483550" lon="-116.871210">
        <ele>-52.508</ele>
        <time>2018-12-27T22:51:02Z</time>
      </trkpt>
      <trkpt lat="36.483380" lon="-116.871290">
        <ele>-53.568</ele>
        <time>2018-12-27T22:51:22Z</time>
      </trkpt>
      <trkpt lat="36.483260" lon="-116.871340">
        <ele>-54.276</ele>
        <time>2018-12-27T22:51:42Z</time>
      </trkpt>
      <trkpt lat="36.483090" lon="-116.871370">
        <ele>-55.981</ele>
        <time>2018-12-27T22:52:02Z</time>
      </trkpt>
      <trkpt lat="36.482960" lon="-116.871390">
        <ele>-57.392</ele>
        <time>2018-12-27T22:52:22Z</time>
      </trkpt>
      <trkpt lat="36.482730" lon="-116.871390">
        <ele>-59.636</ele>
        <time>2018-12-27T22:52:42Z</time>
      </trkpt>
      <trkpt lat="36.482490" lon="-116.871370">
        <ele>-61.265</ele>
        <time>2018-12-27T22:53:02Z</time>
      </trkpt>
      <trkpt lat="36.482240" lon="-116.871320">
        <ele>-62.284</ele>
        <time>2018-12-27T22:53:22Z</time>
      </trkpt>
      <trkpt lat="36.482030" lon="-116.871260">
        <ele>-62.974</ele>
        <time>2018-12-27T22:53:42Z</time>
      </trkpt>
      <trkpt lat="36.481930" lon="-116.871210">
        <ele>-63.197</ele>
        <time>2018-12-27T22:54:02Z</time>
      </trkpt>
      <trkpt lat="36.481790" lon="-116.871140">
        <ele>-63.523</ele>
        <time>2018-12-27T22:54:22Z</time>
      </trkpt>
      <trkpt lat="36.481640" lon="-116.871040">
        <ele>-63.725</ele>
        <time>2018-12-27T22:54:42Z</time>
      </trkpt>
      <trkpt lat="36.481450" lon="-116.870900">
        <ele>-64.008</ele>
        <time>2018-12-27T22:55:02Z</time>
      </trkpt>
      <trkpt lat="36.481270" lon="-116.870740">
        <ele>-64.282</ele>
        <time>2018-12-27T22:55:22Z</time>
      </trkpt>
      <trkpt lat="36.480260" lon="-116.869730">
        <ele>-64.910</ele>
        <time>2018-12-27T22:55:42Z</time>
      </trkpt>
      <trkpt lat="36.480100" lon="-116.869570">
        <ele>-65.095</ele>
        <time>2018-12-27T22:56:02Z</time>
      </trkpt>
      <trkpt lat="36.479900" lon="-116.869370">
        <ele>-64.916</ele>
        <time>2018-12-27T22:56:22Z</time>
      </trkpt>
      <trkpt lat="36.479790" lon="-116.869250">
        <ele>-64.870</ele>
        <time>2018-12-27T22:56:42Z</time>
      </trkpt>
      <trkpt lat="36.479700" lon="-116.869160">
        <ele>-64.769</ele>
        <time>2018-12-27T22:57:02Z</time>
      </trkpt>
      <trkpt lat="36.479640" lon="-116.869110">
        <ele>-64.718</ele>
        <time>2018-12-27T22:57:22Z</time>
      </trkpt>
      <trkpt lat="36.479570" lon="-116.869070">
        <ele>-64.758</ele>
        <time>2018-12-27T22:57:42Z</time>
      </trkpt>
      <trkpt lat="36.479440" lon="-116.868980">
        <ele>-64.692</ele>
        <time>2018-12-27T22:58:02Z</time>
      </trkpt>
      <trkpt lat="36.479330" lon="-116.868920">
        <ele>-64.673</ele>
        <time>2018-12-27T22:58:22Z</time>
      </trkpt>
      <trkpt lat="36.479240" lon="-116.868880">
        <ele>-64.620</ele>
        <time>2018-12-27T22:58:42Z</time>
      </trkpt>
      <trkpt lat="36.478890" lon="-116.868730">
        <ele>-64.608</ele>
        <time>2018-12-27T22:59:02Z</time>
      </trkpt>
      <trkpt lat="36.478530" lon="-116.868610">
        <ele>-64.732</ele>
        <time>2018-12-27T22:59:22Z</time>
      </trkpt>
      <trkpt lat="36.478210" lon="-116.868520">
        <ele>-64.880</ele>
        <time>2018-12-27T22:59:42Z</time>
      </trkpt>
      <trkpt lat="36.477790" lon="-116.868410">
        <ele>-64.775</ele>
        <time>2018-12-27T23:00:02Z</time>
      </trkpt>
      <trkpt lat="36.477500" lon="-116.868340">
        <ele>-64.686</ele>
        <time>2018-12-27T23:00:22Z</time>
      </trkpt>
      <trkpt lat="36.476940" lon="-116.868230">
        <ele>-64.680</ele>
        <time>2018-12-27T23:00:42Z</time>
      </trkpt>
      <trkpt lat="36.476600" lon="-116.868160">
        <ele>-64.579</ele>
        <time>2018-12-27T23:01:02Z</time>
      </trkpt>
      <trkpt lat="36.474530" lon="-116.867760">
        <ele>-64.228</ele>
        <time>2018-12-27T23:01:22Z</time>
      </trkpt>
      <trkpt lat="36.473160" lon="-116.867490">
        <ele>-63.528</ele>
        <time>2018-12-27T23:01:42Z</time>
      </trkpt>
      <trkpt lat="36.472470" lon="-116.867340">
        <ele>-64.086</ele>
        <time>2018-12-27T23:02:02Z</time>
      </trkpt>
      <trkpt lat="36.471870" lon="-116.867230">
        <ele>-63.860</ele>
        <time>2018-12-27T23:02:22Z</time>
      </trkpt>
      <trkpt lat="36.471340" lon="-116.867140">
        <ele>-63.726</ele>
        <time>2018-12-27T23:02:42Z</time>
      </trkpt>
      <trkpt lat="36.471080" lon="-116.867110">
        <ele>-63.608</ele>
        <time>2018-12-27T23:03:02Z</time>
      </trkpt>
      <trkpt lat="36.470740" lon="-116.867070">
        <ele>-63.541</ele>
        <time>2018-12-27T23:03:22Z</time>
      </trkpt>
      <trkpt lat="36.470310" lon="-116.867030">
        <ele>-63.399</ele>
        <time>2018-12-27T23:03:42Z</time>
      </trkpt>
      <trkpt lat="36.469640" lon="-116.866990">
        <ele>-63.014</ele>
        <time>2018-12-27T23:04:02Z</time>
      </trkpt>
      <trkpt lat="36.468940" lon="-116.866940">
        <ele>-62.745</ele>
        <time>2018-12-27T23:04:22Z</time>
      </trkpt>
      <trkpt lat="36.468630" lon="-116.866920">
        <ele>-62.479</ele>
        <time>2018-12-27T23:04:42Z</time>
      </trkpt>
      <trkpt lat="36.468270" lon="-116.866890">
        <ele>-61.968</ele>
        <time>2018-12-27T23:05:02Z</time>
      </trkpt>
      <trkpt lat="36.468060" lon="-116.866870">
        <ele>-61.767</ele>
        <time>2018-12-27T23:05:22Z</time>
      </trkpt>
      <trkpt lat="36.467840" lon="-116.866820">
        <ele>-61.457</ele>
        <time>2018-12-27T23:05:42Z</time>
      </trkpt>
      <trkpt lat="36.467450" lon="-116.866690">
        <ele>-61.446</ele>
        <time>2018-12-27T23:06:02Z</time>
      </trkpt>
      <trkpt lat="36.467020" lon="-116.866530">
        <ele>-61.888</ele>
        <time>2018-12-27T23:06:22Z</time>
      </trkpt>
      <trkpt lat="36.466510" lon="-116.866320">
        <ele>-61.416</ele>
        <time>2018-12-27T23:06:42Z</time>
      </trkpt>
      <trkpt lat="36.466290" lon="-116.866240">
        <ele>-61.408</ele>
        <time>2018-12-27T23:07:02Z</time>
      </trkpt>
      <trkpt lat="36.465500" lon="-116.865910">
        <ele>-61.567</ele>
        <time>2018-12-27T23:07:22Z</time>
      </trkpt>
      <trkpt lat="36.465250" lon="-116.865810">
        <ele>-61.335</ele>
        <time>2018-12-27T23:07:42Z</time>
      </trkpt>
      <trkpt lat="36.465020" lon="-116.865720">
        <ele>-61.150</ele>
        <time>2018-12-27T23:08:02Z</time>
      </trkpt>
      <trkpt lat="36.464870" lon="-116.865680">
        <ele>-60.941</ele>
        <time>2018-12-27T23:08:22Z</time>
      </trkpt>
      <trkpt lat="36.464700" lon="-116.865630">
        <ele>-60.775</ele>
        <time>2018-12-27T23:08:42Z</time>
      </trkpt>
      <trkpt lat="36.464470" lon="-116.865600">
        <ele>-60.494</ele>
        <time>2018-12-27T23:09:02Z</time>
      </trkpt>
      <trkpt lat="36.464330" lon="-116.865580">
        <ele>-60.113</ele>
        <time>2018-12-27T23:09:22Z</time>
      </trkpt>
      <trkpt lat="36.464170" lon="-116.865570">
        <ele>-59.573</ele>
        <time>2018-12-27T23:09:42Z</time>
      </trkpt>
      <trkpt lat="36.463860" lon="-116.865570">
        <ele>-58.583</ele>
        <time>2018-12-27T23:10:02Z</time>
      </trkpt>
      <trkpt lat="36.463400" lon="-116.865570">
        <ele>-58.025</ele>
        <time>2018-12-27T23:10:22Z</time>
      </trkpt>
      <trkpt lat="36.462910" lon="-116.865570">
        <ele>-57.817</ele>
        <time>2018-12-27T23:10:42Z</time>
      </trkpt>
      <trkpt lat="36.462390" lon="-116.865570">
        <ele>-57.608</ele>
        <time>2018-12-27T23:11:02Z</time>
      </trkpt>
      <trkpt lat="36.461880" lon="-116.865540">
        <ele>-57.141</ele>
        <time>2018-12-27T23:11:22Z</time>
      </trkpt>
      <trkpt lat="36.461650" lon="-116.865520">
        <ele>-56.839</ele>
        <time>2018-12-27T23:11:42Z</time>
      </trkpt>
      <trkpt lat="36.461440" lon="-116.865500">
        <ele>-56.544</ele>
        <time>2018-12-27T23:12:02Z</time>
      </trkpt>
      <trkpt lat="36.460850" lon="-116.865460">
        <ele>-55.785</ele>
        <time>2018-12-27T23:12:22Z</time>
      </trkpt>
      <trkpt lat="36.460460" lon="-116.865430">
        <ele>-55.139</ele>
        <time>2018-12-27T23:12:42Z</time>
      </trkpt>
      <trkpt lat="36.459860" lon="-116.865380">
        <ele>-54.138</ele>
        <time>2018-12-27T23:13:02Z</time>
      </trkpt>
      <trkpt lat="36.458720" lon="-116.865300">
        <ele>-52.377</ele>
        <time>2018-12-27T23:13:22Z</time>
      </trkpt>
      <trkpt lat="36.458260" lon="-116.865260">
        <ele>-51.557</ele>
        <time>2018-12-27T23:13:42Z</time>
      </trkpt>
      <trkpt lat="36.457910" lon="-116.865230">
        <ele>-50.988</ele>
        <time>2018-12-27T23:14:02Z</time>
      </trkpt>
      <trkpt lat="36.457380" lon="-116.865190">
        <ele>-50.224</ele>
        <time>2018-12-27T23:14:22Z</time>
      </trkpt>
      <trkpt lat="36.457120" lon="-116.865170">
        <ele>-49.826</ele>
        <time>2018-12-27T23:14:42Z</time>
      </trkpt>
      <trkpt lat="36.456710" lon="-116.865130">
        <ele>-49.308</ele>
        <time>2018-12-27T23:15:02Z</time>
      </trkpt>
      <trkpt lat="36.456560" lon="-116.865120">
        <ele>-49.221</ele>
        <time>2018-12-27T23:15:22Z</time>
      </trkpt>
      <trkpt lat="36.456420" lon="-116.865100">
        <ele>-49.119</ele>
        <time>2018-12-27T23:15:42Z</time>
      </trkpt>
      <trkpt lat="36.456200" lon="-116.865060">
        <ele>-48.974</ele>
        <time>2018-12-27T23:16:02Z</time>
      </trkpt>
      <trkpt lat="36.455890" lon="-116.865010">
        <ele>-48.745</ele>
        <time>2018-12-27T23:16:22Z</time>
      </trkpt>
      <trkpt lat="36.455780" lon="-116.864990">
        <ele>-48.799</ele>
        <time>2018-12-27T23:16:42Z</time>
      </trkpt>
      <trkpt lat="36.455650" lon="-116.864960">
        <ele>-48.618</ele>
        <time>2018-12-27T23:17:02Z</time>
      </trkpt>
      <trkpt lat="36.455440" lon="-116.864900">
        <ele>-48.327</ele>
        <time>2018-12-27T23:17:22Z</time>
      </trkpt>
      <trkpt lat="36.455190" lon="-116.864820">
        <ele>-48.187</ele>
        <time>2018-12-27T23:17:42Z</time>
      </trkpt>
      <trkpt lat="36.454840" lon="-116.864700">
        <ele>-47.682</ele>
        <time>2018-12-27T23:18:02Z</time>
      </trkpt>
      <trkpt lat="36.454470" lon="-116.864560">
        <ele>-46.443</ele>
        <time>2018-12-27T23:18:22Z</time>
      </trkpt>
      <trkpt lat="36.454290" lon="-116.864490">
        <ele>-45.817</ele>
        <time>2018-12-27T23:18:42Z</time>
      </trkpt>
      <trkpt lat="36.454130" lon="-116.864410">
        <ele>-45.208</ele>
        <time>2018-12-27T23:19:02Z</time>
      </trkpt>
      <trkpt lat="36.453980" lon="-116.864340">
        <ele>-44.631</ele>
        <time>2018-12-27T23:19:22Z</time>
      </trkpt>
      <trkpt lat="36.453730" lon="-116.864200">
        <ele>-43.639</ele>
        <time>2018-12-27T23:19:42Z</time>
      </trkpt>
      <trkpt lat="36.453580" lon="-116.864110">
        <ele>-43.014</ele>
        <time>2018-12-27T23:20:02Z</time>
      </trkpt>
      <trkpt lat="36.453400" lon="-116.863990">
        <ele>-42.245</ele>
        <time>2018-12-27T23:20:22Z</time>
      </trkpt>
      <trkpt lat="36.453240" lon="-116.863880">
        <ele>-41.419</ele>
        <time>2018-12-27T23:20:42Z</time>
      </trkpt>
      <trkpt lat="36.452990" lon="-116.863700">
        <ele>-40.228</ele>
        <time>2018-12-27T23:21:02Z</time>
      </trkpt>
      <trkpt lat="36.452820" lon="-116.863580">
        <ele>-39.397</ele>
        <time>2018-12-27T23:21:22Z</time>
      </trkpt>
      <trkpt lat="36.452610" lon="-116.863400">
        <ele>-38.137</ele>
        <time>2018-12-27T23:21:42Z</time>
      </trkpt>
      <trkpt lat="36.452420" lon="-116.863240">
        <ele>-37.141</ele>
        <time>2018-12-27T23:22:02Z</time>
      </trkpt>
      <trkpt lat="36.452280" lon="-116.863110">
        <ele>-36.481</ele>
        <time>2018-12-27T23:22:22Z</time>
      </trkpt>
      <trkpt lat="36.452050" lon="-116.862890">
        <ele>-35.509</ele>
        <time>2018-12-27T23:22:42Z</time>
      </trkpt>
      <trkpt lat="36.451910" lon="-116.862740">
        <ele>-34.908</ele>
        <time>2018-12-27T23:23:02Z</time>
      </trkpt>
      <trkpt lat="36.451720" lon="-116.862530">
        <ele>-34.187</ele>
        <time>2018-12-27T23:23:22Z</time>
      </trkpt>
      <trkpt lat="36.451450" lon="-116.862210">
        <ele>-32.955</ele>
        <time>2018-12-27T23:23:42Z</time>
      </trkpt>
      <trkpt lat="36.451260" lon="-116.861960">
        <ele>-31.720</ele>
        <time>2018-12-27T23:24:02Z</time>
      </trkpt>
      <trkpt lat="36.451060" lon="-116.861680">
        <ele>-30.421</ele>
        <time>2018-12-27T23:24:22Z</time>
      </trkpt>
      <trkpt lat="36.450910" lon="-116.861450">
        <ele>-29.385</ele>
        <time>2018-12-27T23:24:42Z</time>
      </trkpt>
      <trkpt lat="36.450750" lon="-116.861200">
        <ele>-28.044</ele>
        <time>2018-12-27T23:25:02Z</time>
      </trkpt>
      <trkpt lat="36.450580" lon="-116.860910">
        <ele>-26.643</ele>
        <time>2018-12-27T23:25:22Z</time>
      </trkpt>
      <trkpt lat="36.450450" lon="-116.860690">
        <ele>-25.493</ele>
        <time>2018-12-27T23:25:42Z</time>
      </trkpt>
      <trkpt lat="36.450360" lon="-116.860520">
        <ele>-24.695</ele>
        <time>2018-12-27T23:26:02Z</time>
      </trkpt>
      <trkpt lat="36.450270" lon="-116.860360">
        <ele>-23.849</ele>
        <time>2018-12-27T23:26:22Z</time>
      </trkpt>
      <trkpt lat="36.450140" lon="-116.860070">
        <ele>-22.823</ele>
        <time>2018-12-27T23:26:42Z</time>
      </trkpt>
      <trkpt lat="36.450070" lon="-116.859930">
        <ele>-22.408</ele>
        <time>2018-12-27T23:27:02Z</time>
      </trkpt>
      <trkpt lat="36.449980" lon="-116.859700">
        <ele>-21.722</ele>
        <time>2018-12-27T23:27:22Z</time>
      </trkpt>
      <trkpt lat="36.449890" lon="-116.859450">
        <ele>-20.970</ele>
        <time>2018-12-27T23:27:42Z</time>
      </trkpt>
      <trkpt lat="36.449770" lon="-116.859090">
        <ele>-19.665</ele>
        <time>2018-12-27T23:28:02Z</time>
      </trkpt>
      <trkpt lat="36.449560" lon="-116.858450">
        <ele>-17.126</ele>
        <time>2018-12-27T23:28:22Z</time>
      </trkpt>
      <trkpt lat="36.448410" lon="-116.854800">
        <ele>-4.160</ele>
        <time>2018-12-27T23:28:42Z</time>
      </trkpt>
      <trkpt lat="36.448370" lon="-116.854660">
        <ele>-3.879</ele>
        <time>2018-12-27T23:29:02Z</time>
      </trkpt>
      <trkpt lat="36.448360" lon="-116.854620">
        <ele>-3.858</ele>
        <time>2018-12-27T23:29:22Z</time>
      </trkpt>
      <trkpt lat="36.448330" lon="-116.854510">
        <ele>-3.618</ele>
        <time>2018-12-27T23:29:42Z</time>
      </trkpt>
      <trkpt lat="36.448310" lon="-116.854390">
        <ele>-3.473</ele>
        <time>2018-12-27T23:30:02Z</time>
      </trkpt>
      <trkpt lat="36.448300" lon="-116.854290">
        <ele>-3.285</ele>
        <time>2018-12-27T23:30:22Z</time>
      </trkpt>
      <trkpt lat="36.448280" lon="-116.854170">
        <ele>-2.913</ele>
        <time>2018-12-27T23:30:42Z</time>
      </trkpt>
      <trkpt lat="36.448270" lon="-116.854040">
        <ele>-2.708</ele>
        <time>2018-12-27T23:31:02Z</time>
      </trkpt>
      <trkpt lat="36.448260" lon="-116.853890">
        <ele>-2.470</ele>
        <time>2018-12-27T23:31:22Z</time>
      </trkpt>
      <trkpt lat="36.448260" lon="-116.853750">
        <ele>-2.038</ele>
        <time>2018-12-27T23:31:42Z</time>
      </trkpt>
      <trkpt lat="36.448260" lon="-116.853660">
        <ele>-1.713</ele>
        <time>2018-12-27T23:32:02Z</time>
      </trkpt>
      <trkpt lat="36.448270" lon="-116.853630">
        <ele>-1.694</ele>
        <time>2018-12-27T23:32:22Z</time>
      </trkpt>
      <trkpt lat="36.448270" lon="-116.853520">
        <ele>-1.338</ele>
        <time>2018-12-27T23:32:42Z</time>
      </trkpt>
      <trkpt lat="36.448290" lon="-116.853390">
        <ele>-0.857</ele>
        <time>2018-12-27T23:33:02Z</time>
      </trkpt>
      <trkpt lat="36.448300" lon="-116.853270">
        <ele>-0.476</ele>
        <time>2018-12-27T23:33:22Z</time>
      </trkpt>
      <trkpt lat="36.448310" lon="-116.853240">
        <ele>-0.376</ele>
        <time>2018-12-27T23:33:42Z</time>
      </trkpt>
      <trkpt lat="36.448330" lon="-116.853130">
        <ele>0.135</ele>
        <time>2018-12-27T23:34:02Z</time>
      </trkpt>
      <trkpt lat="36.448370" lon="-116.852950">
        <ele>1.186</ele>
        <time>2018-12-27T23:34:22Z</time>
      </trkpt>
      <trkpt lat="36.448430" lon="-116.852750">
        <ele>2.014</ele>
        <time>2018-12-27T23:34:42Z</time>
      </trkpt>
      <trkpt lat="36.448426" lon="-116.852749">
        <ele>2.008</ele>
        <time>2018-12-27T23:35:02Z</time>
      </trkpt>
      <trkpt lat="36.448120" lon="-116.852460">
        <ele>0.826</ele>
        <time>2018-12-27T23:35:22Z</time>
      </trkpt>
      <trkpt lat="36.447640" lon="-116.852060">
        <ele>-0.734</ele>
        <time>2018-12-27T23:35:42Z</time>
      </trkpt>
      <trkpt lat="36.447370" lon="-116.851850">
        <ele>-0.229</ele>
        <time>2018-12-27T23:36:02Z</time>
      </trkpt>
      <trkpt lat="36.447210" lon="-116.851780">
        <ele>-0.180</ele>
        <time>2018-12-27T23:36:22Z</time>
      </trkpt>
      <trkpt lat="36.447060" lon="-116.851730">
        <ele>-0.124</ele>
        <time>2018-12-27T23:36:42Z</time>
      </trkpt>
      <trkpt lat="36.446930" lon="-116.851690">
        <ele>-0.223</ele>
        <time>2018-12-27T23:37:02Z</time>
      </trkpt>
      <trkpt lat="36.446760" lon="-116.851680">
        <ele>-0.812</ele>
        <time>2018-12-27T23:37:22Z</time>
      </trkpt>
      <trkpt lat="36.446530" lon="-116.851670">
        <ele>-1.032</ele>
        <time>2018-12-27T23:37:42Z</time>
      </trkpt>
      <trkpt lat="36.446200" lon="-116.851670">
        <ele>-1.566</ele>
        <time>2018-12-27T23:38:02Z</time>
      </trkpt>
      <trkpt lat="36.445890" lon="-116.851670">
        <ele>-2.429</ele>
        <time>2018-12-27T23:38:22Z</time>
      </trkpt>
      <trkpt lat="36.445680" lon="-116.851660">
        <ele>-2.521</ele>
        <time>2018-12-27T23:38:42Z</time>
      </trkpt>
      <trkpt lat="36.445590" lon="-116.851650">
        <ele>-2.608</ele>
        <time>2018-12-27T23:39:02Z</time>
      </trkpt>
      <trkpt lat="36.445420" lon="-116.851620">
        <ele>-2.479</ele>
        <time>2018-12-27T23:39:22Z</time>
      </trkpt>
      <trkpt lat="36.445260" lon="-116.851580">
        <ele>-3.697</ele>
        <time>2018-12-27T23:39:42Z</time>
      </trkpt>
      <trkpt lat="36.445010" lon="-116.851500">
        <ele>-6.062</ele>
        <time>2018-12-27T23:40:02Z</time>
      </trkpt>
      <trkpt lat="36.444890" lon="-116.851460">
        <ele>-7.283</ele>
        <time>2018-12-27T23:40:22Z</time>
      </trkpt>
      <trkpt lat="36.444800" lon="-116.851430">
        <ele>-7.817</ele>
        <time>2018-12-27T23:40:42Z</time>
      </trkpt>
      <trkpt lat="36.444710" lon="-116.851410">
        <ele>-8.616</ele>
        <time>2018-12-27T23:41:02Z</time>
      </trkpt>
      <trkpt lat="36.444630" lon="-116.851390">
        <ele>-9.325</ele>
        <time>2018-12-27T23:41:22Z</time>
      </trkpt>
      <trkpt lat="36.444550" lon="-116.851380">
        <ele>-10.085</ele>
        <time>2018-12-27T23:41:42Z</time>
      </trkpt>
      <trkpt lat="36.444450" lon="-116.851370">
        <ele>-10.583</ele>
        <time>2018-12-27T23:42:02Z</time>
      </trkpt>
      <trkpt lat="36.444340" lon="-116.851370">
        <ele>-11.225</ele>
        <time>2018-12-27T23:42:22Z</time>
      </trkpt>
      <trkpt lat="36.444210" lon="-116.851370">
        <ele>-11.717</ele>
        <time>2018-12-27T23:42:42Z</time>
      </trkpt>
      <trkpt lat="36.443890" lon="-116.851390">
        <ele>-12.608</ele>
        <time>2018-12-27T23:43:02Z</time>
      </trkpt>
      <trkpt lat="36.443660" lon="-116.851410">
        <ele>-12.851</ele>
        <time>2018-12-27T23:43:22Z</time>
      </trkpt>
      <trkpt lat="36.443330" lon="-116.851430">
        <ele>-13.449</ele>
        <time>2018-12-27T23:43:42Z</time>
      </trkpt>
      <trkpt lat="36.443100" lon="-116.851440">
        <ele>-13.874</ele>
        <time>2018-12-27T23:44:02Z</time>
      </trkpt>
      <trkpt lat="36.442740" lon="-116.851470">
        <ele>-14.175</ele>
        <time>2018-12-27T23:44:22Z</time>
      </trkpt>
      <trkpt lat="36.442400" lon="-116.851490">
        <ele>-14.369</ele>
        <time>2018-12-27T23:44:42Z</time>
      </trkpt>
      <trkpt lat="36.441860" lon="-116.851510">
        <ele>-15.918</ele>
        <time>2018-12-27T23:45:02Z</time>
      </trkpt>
      <trkpt lat="36.441520" lon="-116.851540">
        <ele>-17.967</ele>
        <time>2018-12-27T23:45:22Z</time>
      </trkpt>
      <trkpt lat="36.441350" lon="-116.851560">
        <ele>-18.857</ele>
        <time>2018-12-27T23:45:42Z</time>
      </trkpt>
      <trkpt lat="36.441190" lon="-116.851600">
        <ele>-19.618</ele>
        <time>2018-12-27T23:46:02Z</time>
      </trkpt>
      <trkpt lat="36.440910" lon="-116.851720">
        <ele>-20.898</ele>
        <time>2018-12-27T23:46:22Z</time>
      </trkpt>
      <trkpt lat="36.440630" lon="-116.851860">
        <ele>-22.117</ele>
        <time>2018-12-27T23:46:42Z</time>
      </trkpt>
      <trkpt lat="36.440390" lon="-116.851970">
        <ele>-23.208</ele>
        <time>2018-12-27T23:47:02Z</time>
      </trkpt>
      <trkpt lat="36.440260" lon="-116.852030">
        <ele>-24.084</ele>
        <time>2018-12-27T23:47:22Z</time>
      </trkpt>
      <trkpt lat="36.440120" lon="-116.852080">
        <ele>-24.852</ele>
        <time>2018-12-27T23:47:42Z</time>
      </trkpt>
      <trkpt lat="36.439970" lon="-116.852110">
        <ele>-25.437</ele>
        <time>2018-12-27T23:48:02Z</time>
      </trkpt>
      <trkpt lat="36.439810" lon="-116.852130">
        <ele>-26.078</ele>
        <time>2018-12-27T23:48:22Z</time>
      </trkpt>
      <trkpt lat="36.439660" lon="-116.852140">
        <ele>-26.782</ele>
        <time>2018-12-27T23:48:42Z</time>
      </trkpt>
      <trkpt lat="36.439500" lon="-116.852120">
        <ele>-27.461</ele>
        <time>2018-12-27T23:49:02Z</time>
      </trkpt>
      <trkpt lat="36.439330" lon="-116.852080">
        <ele>-28.190</ele>
        <time>2018-12-27T23:49:22Z</time>
      </trkpt>
      <trkpt lat="36.439180" lon="-116.852040">
        <ele>-28.970</ele>
        <time>2018-12-27T23:49:42Z</time>
      </trkpt>
      <trkpt lat="36.438830" lon="-116.851870">
        <ele>-30.992</ele>
        <time>2018-12-27T23:50:02Z</time>
      </trkpt>
      <trkpt lat="36.438670" lon="-116.851770">
        <ele>-31.873</ele>
        <time>2018-12-27T23:50:22Z</time>
      </trkpt>
      <trkpt lat="36.438440" lon="-116.851650">
        <ele>-33.620</ele>
        <time>2018-12-27T23:50:42Z</time>
      </trkpt>
      <trkpt lat="36.438320" lon="-116.851590">
        <ele>-34.808</ele>
        <time>2018-12-27T23:51:02Z</time>
      </trkpt>
      <trkpt lat="36.438210" lon="-116.851550">
        <ele>-36.022</ele>
        <time>2018-12-27T23:51:22Z</time>
      </trkpt>
      <trkpt lat="36.438070" lon="-116.851510">
        <ele>-36.570</ele>
        <time>2018-12-27T23:51:42Z</time>
      </trkpt>
      <trkpt lat="36.437970" lon="-116.851490">
        <ele>-36.835</ele>
        <time>2018-12-27T23:52:02Z</time>
      </trkpt>
      <trkpt lat="36.437850" lon="-116.851470">
        <ele>-37.256</ele>
        <time>2018-12-27T23:52:22Z</time>
      </trkpt>
      <trkpt lat="36.437580" lon="-116.851450">
        <ele>-37.770</ele>
        <time>2018-12-27T23:52:42Z</time>
      </trkpt>
      <trkpt lat="36.436240" lon="-116.851380">
        <ele>-39.479</ele>
        <time>2018-12-27T23:53:02Z</time>
      </trkpt>
      <trkpt lat="36.434340" lon="-116.851280">
        <ele>-49.098</ele>
        <time>2018-12-27T23:53:22Z</time>
      </trkpt>
      <trkpt lat="36.433900" lon="-116.851270">
        <ele>-48.978</ele>
        <time>2018-12-27T23:53:42Z</time>
      </trkpt>
      <trkpt lat="36.433250" lon="-116.851230">
        <ele>-48.975</ele>
        <time>2018-12-27T23:54:02Z</time>
      </trkpt>
      <trkpt lat="36.433050" lon="-116.851230">
        <ele>-49.128</ele>
        <time>2018-12-27T23:54:22Z</time>
      </trkpt>
      <trkpt lat="36.432860" lon="-116.851270">
        <ele>-49.220</ele>
        <time>2018-12-27T23:54:42Z</time>
      </trkpt>
      <trkpt lat="36.432670" lon="-116.851320">
        <ele>-49.008</ele>
        <time>2018-12-27T23:55:02Z</time>
      </trkpt>
      <trkpt lat="36.432480" lon="-116.851410">
        <ele>-48.950</ele>
        <time>2018-12-27T23:55:22Z</time>
      </trkpt>
      <trkpt lat="36.432290" lon="-116.851530">
        <ele>-49.058</ele>
        <time>2018-12-27T23:55:42Z</time>
      </trkpt>
      <trkpt lat="36.431690" lon="-116.851990">
        <ele>-49.893</ele>
        <time>2018-12-27T23:56:02Z</time>
      </trkpt>
      <trkpt lat="36.431660" lon="-116.852010">
        <ele>-49.824</ele>
        <time>2018-12-27T23:56:22Z</time>
      </trkpt>
      <trkpt lat="36.431620" lon="-116.852040">
        <ele>-49.988</ele>
        <time>2018-12-27T23:56:42Z</time>
      </trkpt>
      <trkpt lat="36.431560" lon="-116.852070">
        <ele>-50.087</ele>
        <time>2018-12-27T23:57:02Z</time>
      </trkpt>
      <trkpt lat="36.431510" lon="-116.852100">
        <ele>-50.156</ele>
        <time>2018-12-27T23:57:22Z</time>
      </trkpt>
      <trkpt lat="36.431460" lon="-116.852120">
        <ele>-50.256</ele>
        <time>2018-12-27T23:57:42Z</time>
      </trkpt>
      <trkpt lat="36.431410" lon="-116.852140">
        <ele>-50.415</ele>
        <time>2018-12-27T23:58:02Z</time>
      </trkpt>
      <trkpt lat="36.431360" lon="-116.852160">
        <ele>-50.565</ele>
        <time>2018-12-27T23:58:22Z</time>
      </trkpt>
      <trkpt lat="36.431300" lon="-116.852180">
        <ele>-50.611</ele>
        <time>2018-12-27T23:58:42Z</time>
      </trkpt>
      <trkpt lat="36.431250" lon="-116.852190">
        <ele>-50.708</ele>
        <time>2018-12-27T23:59:02Z</time>
      </trkpt>
      <trkpt lat="36.431180" lon="-116.852210">
        <ele>-50.944</ele>
        <time>2018-12-27T23:59:22Z</time>
      </trkpt>
      <trkpt lat="36.431120" lon="-116.852220">
        <ele>-51.072</ele>
        <time>2018-12-27T23:59:42Z</time>
      </trkpt>
      <trkpt lat="36.431060" lon="-116.852220">
        <ele>-51.157</ele>
        <time>2018-12-28T00:00:02Z</time>
      </trkpt>
      <trkpt lat="36.431000" lon="-116.852230">
        <ele>-51.298</ele>
        <time>2018-12-28T00:00:22Z</time>
      </trkpt>
      <trkpt lat="36.430930" lon="-116.852220">
        <ele>-51.312</ele>
        <time>2018-12-28T00:00:42Z</time>
      </trkpt>
      <trkpt lat="36.430870" lon="-116.852220">
        <ele>-51.411</ele>
        <time>2018-12-28T00:01:02Z</time>
      </trkpt>
      <trkpt lat="36.430810" lon="-116.852210">
        <ele>-51.590</ele>
        <time>2018-12-28T00:01:22Z</time>
      </trkpt>
      <trkpt lat="36.430750" lon="-116.852200">
        <ele>-51.680</ele>
        <time>2018-12-28T00:01:42Z</time>
      </trkpt>
      <trkpt lat="36.430670" lon="-116.852180">
        <ele>-51.739</ele>
        <time>2018-12-28T00:02:02Z</time>
      </trkpt>
      <trkpt lat="36.430600" lon="-116.852150">
        <ele>-51.701</ele>
        <time>2018-12-28T00:02:22Z</time>
      </trkpt>
      <trkpt lat="36.430480" lon="-116.852090">
        <ele>-51.821</ele>
        <time>2018-12-28T00:02:42Z</time>
      </trkpt>
      <trkpt lat="36.430350" lon="-116.852000">
        <ele>-51.908</ele>
        <time>2018-12-28T00:03:02Z</time>
      </trkpt>
      <trkpt lat="36.430280" lon="-116.851950">
        <ele>-52.066</ele>
        <time>2018-12-28T00:03:22Z</time>
      </trkpt>
      <trkpt lat="36.429330" lon="-116.851200">
        <ele>-54.264</ele>
        <time>2018-12-28T00:03:42Z</time>
      </trkpt>
      <trkpt lat="36.428340" lon="-116.850430">
        <ele>-56.479</ele>
        <time>2018-12-28T00:04:02Z</time>
      </trkpt>
      <trkpt lat="36.428270" lon="-116.850370">
        <ele>-56.610</ele>
        <time>2018-12-28T00:04:22Z</time>
      </trkpt>
      <trkpt lat="36.428190" lon="-116.850310">
        <ele>-56.794</ele>
        <time>2018-12-28T00:04:42Z</time>
      </trkpt>
      <trkpt lat="36.428120" lon="-116.850250">
        <ele>-56.983</ele>
        <time>2018-12-28T00:05:02Z</time>
      </trkpt>
      <trkpt lat="36.428040" lon="-116.850190">
        <ele>-57.252</ele>
        <time>2018-12-28T00:05:22Z</time>
      </trkpt>
      <trkpt lat="36.427970" lon="-116.850140">
        <ele>-57.452</ele>
        <time>2018-12-28T00:05:42Z</time>
      </trkpt>
      <trkpt lat="36.427890" lon="-116.850080">
        <ele>-57.696</ele>
        <time>2018-12-28T00:06:02Z</time>
      </trkpt>
      <trkpt lat="36.427810" lon="-116.850020">
        <ele>-57.731</ele>
        <time>2018-12-28T00:06:22Z</time>
      </trkpt>
      <trkpt lat="36.427730" lon="-116.849970">
        <ele>-57.824</ele>
        <time>2018-12-28T00:06:42Z</time>
      </trkpt>
      <trkpt lat="36.427660" lon="-116.849920">
        <ele>-57.908</ele>
        <time>2018-12-28T00:07:02Z</time>
      </trkpt>
      <trkpt lat="36.427580" lon="-116.849870">
        <ele>-57.982</ele>
        <time>2018-12-28T00:07:22Z</time>
      </trkpt>
      <trkpt lat="36.427510" lon="-116.849820">
        <ele>-57.930</ele>
        <time>2018-12-28T00:07:42Z</time>
      </trkpt>
      <trkpt lat="36.427440" lon="-116.849780">
        <ele>-57.985</ele>
        <time>2018-12-28T00:08:02Z</time>
      </trkpt>
      <trkpt lat="36.427360" lon="-116.849730">
        <ele>-57.856</ele>
        <time>2018-12-28T00:08:22Z</time>
      </trkpt>
      <trkpt lat="36.427290" lon="-116.849690">
        <ele>-57.890</ele>
        <time>2018-12-28T00:08:42Z</time>
      </trkpt>
      <trkpt lat="36.427210" lon="-116.849650">
        <ele>-57.789</ele>
        <time>2018-12-28T00:09:02Z</time>
      </trkpt>
      <trkpt lat="36.427140" lon="-116.849610">
        <ele>-57.618</ele>
        <time>2018-12-28T00:09:22Z</time>
      </trkpt>
      <trkpt lat="36.427060" lon="-116.849570">
        <ele>-57.518</ele>
        <time>2018-12-28T00:09:42Z</time>
      </trkpt>
      <trkpt lat="36.426710" lon="-116.849370">
        <ele>-56.617</ele>
        <time>2018-12-28T00:10:02Z</time>
      </trkpt>
      <trkpt lat="36.426450" lon="-116.849250">
        <ele>-56.187</ele>
        <time>2018-12-28T00:10:22Z</time>
      </trkpt>
      <trkpt lat="36.425920" lon="-116.849060">
        <ele>-56.515</ele>
        <time>2018-12-28T00:10:42Z</time>
      </trkpt>
      <trkpt lat="36.425190" lon="-116.848870">
        <ele>-60.308</ele>
        <time>2018-12-28T00:11:02Z</time>
      </trkpt>
      <trkpt lat="36.424300" lon="-116.848650">
        <ele>-60.654</ele>
        <time>2018-12-28T00:11:22Z</time>
      </trkpt>
      <trkpt lat="36.423720" lon="-116.848490">
        <ele>-60.612</ele>
        <time>2018-12-28T00:11:42Z</time>
      </trkpt>
      <trkpt lat="36.422780" lon="-116.848250">
        <ele>-58.097</ele>
        <time>2018-12-28T00:12:02Z</time>
      </trkpt>
      <trkpt lat="36.420480" lon="-116.847680">
        <ele>-49.698</ele>
        <time>2018-12-28T00:12:22Z</time>
      </trkpt>
      <trkpt lat="36.418560" lon="-116.847200">
        <ele>-55.212</ele>
        <time>2018-12-28T00:12:42Z</time>
      </trkpt>
      <trkpt lat="36.416390" lon="-116.846650">
        <ele>-58.441</ele>
        <time>2018-12-28T00:13:02Z</time>
      </trkpt>
      <trkpt lat="36.413510" lon="-116.845930">
        <ele>-55.960</ele>
        <time>2018-12-28T00:13:22Z</time>
      </trkpt>
      <trkpt lat="36.413130" lon="-116.845840">
        <ele>-54.890</ele>
        <time>2018-12-28T00:13:42Z</time>
      </trkpt>
      <trkpt lat="36.412690" lon="-116.845760">
        <ele>-54.094</ele>
        <time>2018-12-28T00:14:02Z</time>
      </trkpt>
      <trkpt lat="36.412320" lon="-116.845710">
        <ele>-53.457</ele>
        <time>2018-12-28T00:14:22Z</time>
      </trkpt>
      <trkpt lat="36.412140" lon="-116.845680">
        <ele>-53.022</ele>
        <time>2018-12-28T00:14:42Z</time>
      </trkpt>
      <trkpt lat="36.411720" lon="-116.845640">
        <ele>-50.408</ele>
        <time>2018-12-28T00:15:02Z</time>
      </trkpt>
      <trkpt lat="36.411160" lon="-116.845610">
        <ele>-47.332</ele>
        <time>2018-12-28T00:15:22Z</time>
      </trkpt>
      <trkpt lat="36.410720" lon="-116.845590">
        <ele>-47.190</ele>
        <time>2018-12-28T00:15:42Z</time>
      </trkpt>
      <trkpt lat="36.410380" lon="-116.845590">
        <ele>-47.035</ele>
        <time>2018-12-28T00:16:02Z</time>
      </trkpt>
      <trkpt lat="36.409760" lon="-116.845620">
        <ele>-47.026</ele>
        <time>2018-12-28T00:16:22Z</time>
      </trkpt>
      <trkpt lat="36.409270" lon="-116.845660">
        <ele>-47.120</ele>
        <time>2018-12-28T00:16:42Z</time>
      </trkpt>
      <trkpt lat="36.408600" lon="-116.845750">
        <ele>-47.519</ele>
        <time>2018-12-28T00:17:02Z</time>
      </trkpt>
      <trkpt lat="36.408050" lon="-116.845840">
        <ele>-47.968</ele>
        <time>2018-12-28T00:17:22Z</time>
      </trkpt>
      <trkpt lat="36.407280" lon="-116.845950">
        <ele>-50.348</ele>
        <time>2018-12-28T00:17:42Z</time>
      </trkpt>
      <trkpt lat="36.406620" lon="-116.846050">
        <ele>-53.377</ele>
        <time>2018-12-28T00:18:02Z</time>
      </trkpt>
      <trkpt lat="36.405860" lon="-116.846150">
        <ele>-56.861</ele>
        <time>2018-12-28T00:18:22Z</time>
      </trkpt>
      <trkpt lat="36.404980" lon="-116.846280">
        <ele>-59.927</ele>
        <time>2018-12-28T00:18:42Z</time>
      </trkpt>
      <trkpt lat="36.404210" lon="-116.846390">
        <ele>-62.508</ele>
        <time>2018-12-28T00:19:02Z</time>
      </trkpt>
      <trkpt lat="36.403330" lon="-116.846520">
        <ele>-63.050</ele>
        <time>2018-12-28T00:19:22Z</time>
      </trkpt>
      <trkpt lat="36.400920" lon="-116.846840">
        <ele>-63.218</ele>
        <time>2018-12-28T00:19:42Z</time>
      </trkpt>
      <trkpt lat="36.400130" lon="-116.846960">
        <ele>-62.423</ele>
        <time>2018-12-28T00:20:02Z</time>
      </trkpt>
      <trkpt lat="36.399260" lon="-116.847080">
        <ele>-61.724</ele>
        <time>2018-12-28T00:20:22Z</time>
      </trkpt>
      <trkpt lat="36.398380" lon="-116.847210">
        <ele>-61.328</ele>
        <time>2018-12-28T00:20:42Z</time>
      </trkpt>
      <trkpt lat="36.397810" lon="-116.847290">
        <ele>-61.397</ele>
        <time>2018-12-28T00:21:02Z</time>
      </trkpt>
      <trkpt lat="36.397210" lon="-116.847370">
        <ele>-61.456</ele>
        <time>2018-12-28T00:21:22Z</time>
      </trkpt>
      <trkpt lat="36.396970" lon="-116.847410">
        <ele>-61.656</ele>
        <time>2018-12-28T00:21:42Z</time>
      </trkpt>
      <trkpt lat="36.396620" lon="-116.847460">
        <ele>-62.069</ele>
        <time>2018-12-28T00:22:02Z</time>
      </trkpt>
      <trkpt lat="36.396590" lon="-116.847460">
        <ele>-62.004</ele>
        <time>2018-12-28T00:22:22Z</time>
      </trkpt>
      <trkpt lat="36.396270" lon="-116.847510">
        <ele>-62.324</ele>
        <time>2018-12-28T00:22:42Z</time>
      </trkpt>
      <trkpt lat="36.395600" lon="-116.847620">
        <ele>-63.108</ele>
        <time>2018-12-28T00:23:02Z</time>
      </trkpt>
      <trkpt lat="36.395010" lon="-116.847710">
        <ele>-64.389</ele>
        <time>2018-12-28T00:23:22Z</time>
      </trkpt>
      <trkpt lat="36.394470" lon="-116.847790">
        <ele>-65.267</ele>
        <time>2018-12-28T00:23:42Z</time>
      </trkpt>
      <trkpt lat="36.394090" lon="-116.847850">
        <ele>-65.452</ele>
        <time>2018-12-28T00:24:02Z</time>
      </trkpt>
      <trkpt lat="36.393540" lon="-116.847940">
        <ele>-65.623</ele>
        <time>2018-12-28T00:24:22Z</time>
      </trkpt>
      <trkpt lat="36.393010" lon="-116.848020">
        <ele>-66.727</ele>
        <time>2018-12-28T00:24:42Z</time>
      </trkpt>
      <trkpt lat="36.392470" lon="-116.848090">
        <ele>-68.446</ele>
        <time>2018-12-28T00:25:02Z</time>
      </trkpt>
      <trkpt lat="36.392380" lon="-116.848110">
        <ele>-68.845</ele>
        <time>2018-12-28T00:25:22Z</time>
      </trkpt>
      <trkpt lat="36.392290" lon="-116.848130">
        <ele>-69.085</ele>
        <time>2018-12-28T00:25:42Z</time>
      </trkpt>
      <trkpt lat="36.392230" lon="-116.848140">
        <ele>-69.285</ele>
        <time>2018-12-28T00:26:02Z</time>
      </trkpt>
      <trkpt lat="36.392170" lon="-116.848160">
        <ele>-69.489</ele>
        <time>2018-12-28T00:26:22Z</time>
      </trkpt>
      <trkpt lat="36.392070" lon="-116.848200">
        <ele>-69.817</ele>
        <time>2018-12-28T00:26:42Z</time>
      </trkpt>
      <trkpt lat="36.392010" lon="-116.848220">
        <ele>-70.308</ele>
        <time>2018-12-28T00:27:02Z</time>
      </trkpt>
      <trkpt lat="36.391950" lon="-116.848250">
        <ele>-70.951</ele>
        <time>2018-12-28T00:27:22Z</time>
      </trkpt>
      <trkpt lat="36.391880" lon="-116.848290">
        <ele>-71.429</ele>
        <time>2018-12-28T00:27:42Z</time>
      </trkpt>
      <trkpt lat="36.391840" lon="-116.848310">
        <ele>-71.754</ele>
        <time>2018-12-28T00:28:02Z</time>
      </trkpt>
      <trkpt lat="36.391760" lon="-116.848370">
        <ele>-72.435</ele>
        <time>2018-12-28T00:28:22Z</time>
      </trkpt>
      <trkpt lat="36.391610" lon="-116.848500">
        <ele>-73.639</ele>
        <time>2018-12-28T00:28:42Z</time>
      </trkpt>
      <trkpt lat="36.391420" lon="-116.848690">
        <ele>-74.598</ele>
        <time>2018-12-28T00:29:02Z</time>
      </trkpt>
      <trkpt lat="36.391100" lon="-116.848990">
        <ele>-74.557</ele>
        <time>2018-12-28T00:29:22Z</time>
      </trkpt>
      <trkpt lat="36.390620" lon="-116.849450">
        <ele>-74.997</ele>
        <time>2018-12-28T00:29:42Z</time>
      </trkpt>
      <trkpt lat="36.390240" lon="-116.849820">
        <ele>-76.193</ele>
        <time>2018-12-28T00:30:02Z</time>
      </trkpt>
      <trkpt lat="36.390150" lon="-116.849890">
        <ele>-77.065</ele>
        <time>2018-12-28T00:30:22Z</time>
      </trkpt>
      <trkpt lat="36.390070" lon="-116.849970">
        <ele>-76.621</ele>
        <time>2018-12-28T00:30:42Z</time>
      </trkpt>
      <trkpt lat="36.389910" lon="-116.850110">
        <ele>-75.808</ele>
        <time>2018-12-28T00:31:02Z</time>
      </trkpt>
      <trkpt lat="36.389810" lon="-116.850190">
        <ele>-75.632</ele>
        <time>2018-12-28T00:31:22Z</time>
      </trkpt>
      <trkpt lat="36.389720" lon="-116.850250">
        <ele>-75.570</ele>
        <time>2018-12-28T00:31:42Z</time>
      </trkpt>
      <trkpt lat="36.389600" lon="-116.850330">
        <ele>-75.335</ele>
        <time>2018-12-28T00:32:02Z</time>
      </trkpt>
      <trkpt lat="36.389450" lon="-116.850420">
        <ele>-75.046</ele>
        <time>2018-12-28T00:32:22Z</time>
      </trkpt>
      <trkpt lat="36.388470" lon="-116.850980">
        <ele>-75.470</ele>
        <time>2018-12-28T00:32:42Z</time>
      </trkpt>
      <trkpt lat="36.387920" lon="-116.851290">
        <ele>-77.139</ele>
        <time>2018-12-28T00:33:02Z</time>
      </trkpt>
      <trkpt lat="36.387390" lon="-116.851600">
        <ele>-75.278</ele>
        <time>2018-12-28T00:33:22Z</time>
      </trkpt>
      <trkpt lat="36.387030" lon="-116.851820">
        <ele>-74.338</ele>
        <time>2018-12-28T00:33:42Z</time>
      </trkpt>
      <trkpt lat="36.386770" lon="-116.851970">
        <ele>-73.937</ele>
        <time>2018-12-28T00:34:02Z</time>
      </trkpt>
      <trkpt lat="36.386420" lon="-116.852170">
        <ele>-73.649</ele>
        <time>2018-12-28T00:34:22Z</time>
      </trkpt>
      <trkpt lat="36.386280" lon="-116.852240">
        <ele>-73.613</ele>
        <time>2018-12-28T00:34:42Z</time>
      </trkpt>
      <trkpt lat="36.386120" lon="-116.852320">
        <ele>-73.608</ele>
        <time>2018-12-28T00:35:02Z</time>
      </trkpt>
      <trkpt lat="36.386000" lon="-116.852360">
        <ele>-73.686</ele>
        <time>2018-12-28T00:35:22Z</time>
      </trkpt>
      <trkpt lat="36.385870" lon="-116.852410">
        <ele>-73.794</ele>
        <time>2018-12-28T00:35:42Z</time>
      </trkpt>
      <trkpt lat="36.385780" lon="-116.852430">
        <ele>-73.759</ele>
        <time>2018-12-28T00:36:02Z</time>
      </trkpt>
      <trkpt lat="36.385660" lon="-116.852450">
        <ele>-73.820</ele>
        <time>2018-12-28T00:36:22Z</time>
      </trkpt>
      <trkpt lat="36.385570" lon="-116.852460">
        <ele>-73.874</ele>
        <time>2018-12-28T00:36:42Z</time>
      </trkpt>
      <trkpt lat="36.385420" lon="-116.852470">
        <ele>-73.833</ele>
        <time>2018-12-28T00:37:02Z</time>
      </trkpt>
      <trkpt lat="36.385190" lon="-116.852460">
        <ele>-73.722</ele>
        <time>2018-12-28T00:37:22Z</time>
      </trkpt>
      <trkpt lat="36.385080" lon="-116.852450">
        <ele>-73.622</ele>
        <time>2018-12-28T00:37:42Z</time>
      </trkpt>
      <trkpt lat="36.384970" lon="-116.852430">
        <ele>-73.596</ele>
        <time>2018-12-28T00:38:02Z</time>
      </trkpt>
      <trkpt lat="36.384910" lon="-116.852410">
        <ele>-73.431</ele>
        <time>2018-12-28T00:38:22Z</time>
      </trkpt>
      <trkpt lat="36.384820" lon="-116.852390">
        <ele>-73.324</ele>
        <time>2018-12-28T00:38:42Z</time>
      </trkpt>
      <trkpt lat="36.384700" lon="-116.852350">
        <ele>-73.208</ele>
        <time>2018-12-28T00:39:02Z</time>
      </trkpt>
      <trkpt lat="36.384380" lon="-116.852220">
        <ele>-72.492</ele>
        <time>2018-12-28T00:39:22Z</time>
      </trkpt>
      <trkpt lat="36.383950" lon="-116.852040">
        <ele>-70.720</ele>
        <time>2018-12-28T00:39:42Z</time>
      </trkpt>
      <trkpt lat="36.383280" lon="-116.851780">
        <ele>-68.545</ele>
        <time>2018-12-28T00:40:02Z</time>
      </trkpt>
      <trkpt lat="36.382550" lon="-116.851500">
        <ele>-64.246</ele>
        <time>2018-12-28T00:40:22Z</time>
      </trkpt>
      <trkpt lat="36.381900" lon="-116.851250">
        <ele>-59.930</ele>
        <time>2018-12-28T00:40:42Z</time>
      </trkpt>
      <trkpt lat="36.381730" lon="-116.851180">
        <ele>-59.489</ele>
        <time>2018-12-28T00:41:02Z</time>
      </trkpt>
      <trkpt lat="36.381450" lon="-116.851070">
        <ele>-59.128</ele>
        <time>2018-12-28T00:41:22Z</time>
      </trkpt>
      <trkpt lat="36.381350" lon="-116.851030">
        <ele>-58.958</ele>
        <time>2018-12-28T00:41:42Z</time>
      </trkpt>
      <trkpt lat="36.380950" lon="-116.850860">
        <ele>-58.189</ele>
        <time>2018-12-28T00:42:02Z</time>
      </trkpt>
      <trkpt lat="36.380460" lon="-116.850670">
        <ele>-56.806</ele>
        <time>2018-12-28T00:42:22Z</time>
      </trkpt>
      <trkpt lat="36.380060" lon="-116.850510">
        <ele>-55.826</ele>
        <time>2018-12-28T00:42:42Z</time>
      </trkpt>
      <trkpt lat="36.379310" lon="-116.850210">
        <ele>-53.708</ele>
        <time>2018-12-28T00:43:02Z</time>
      </trkpt>
      <trkpt lat="36.378480" lon="-116.849880">
        <ele>-51.881</ele>
        <time>2018-12-28T00:43:22Z</time>
      </trkpt>
      <trkpt lat="36.377870" lon="-116.849630">
        <ele>-50.579</ele>
        <time>2018-12-28T00:43:42Z</time>
      </trkpt>
      <trkpt lat="36.377160" lon="-116.849350">
        <ele>-48.534</ele>
        <time>2018-12-28T00:44:02Z</time>
      </trkpt>
      <trkpt lat="36.376620" lon="-116.849140">
        <ele>-45.315</ele>
        <time>2018-12-28T00:44:22Z</time>
      </trkpt>
      <trkpt lat="36.376080" lon="-116.848930">
        <ele>-42.049</ele>
        <time>2018-12-28T00:44:42Z</time>
      </trkpt>
      <trkpt lat="36.375760" lon="-116.848810">
        <ele>-40.628</ele>
        <time>2018-12-28T00:45:02Z</time>
      </trkpt>
      <trkpt lat="36.375290" lon="-116.848630">
        <ele>-39.137</ele>
        <time>2018-12-28T00:45:22Z</time>
      </trkpt>
      <trkpt lat="36.374920" lon="-116.848480">
        <ele>-37.527</ele>
        <time>2018-12-28T00:45:42Z</time>
      </trkpt>
      <trkpt lat="36.374280" lon="-116.848230">
        <ele>-34.934</ele>
        <time>2018-12-28T00:46:02Z</time>
      </trkpt>
      <trkpt lat="36.373850" lon="-116.848050">
        <ele>-34.155</ele>
        <time>2018-12-28T00:46:22Z</time>
      </trkpt>
      <trkpt lat="36.373280" lon="-116.847820">
        <ele>-33.210</ele>
        <time>2018-12-28T00:46:42Z</time>
      </trkpt>
      <trkpt lat="36.372930" lon="-116.847680">
        <ele>-32.608</ele>
        <time>2018-12-28T00:47:02Z</time>
      </trkpt>
      <trkpt lat="36.372330" lon="-116.847440">
        <ele>-31.056</ele>
        <time>2018-12-28T00:47:22Z</time>
      </trkpt>
      <trkpt lat="36.371940" lon="-116.847290">
        <ele>-29.554</ele>
        <time>2018-12-28T00:47:42Z</time>
      </trkpt>
      <trkpt lat="36.371840" lon="-116.847250">
        <ele>-29.129</ele>
        <time>2018-12-28T00:48:02Z</time>
      </trkpt>
      <trkpt lat="36.371380" lon="-116.847080">
        <ele>-24.760</ele>
        <time>2018-12-28T00:48:22Z</time>
      </trkpt>
      <trkpt lat="36.370950" lon="-116.846910">
        <ele>-22.164</ele>
        <time>2018-12-28T00:48:42Z</time>
      </trkpt>
      <trkpt lat="36.370430" lon="-116.846710">
        <ele>-20.763</ele>
        <time>2018-12-28T00:49:02Z</time>
      </trkpt>
      <trkpt lat="36.369770" lon="-116.846450">
        <ele>-19.222</ele>
        <time>2018-12-28T00:49:22Z</time>
      </trkpt>
      <trkpt lat="36.369030" lon="-116.846150">
        <ele>-17.622</ele>
        <time>2018-12-28T00:49:42Z</time>
      </trkpt>
      <trkpt lat="36.368590" lon="-116.845980">
        <ele>-16.762</ele>
        <time>2018-12-28T00:50:02Z</time>
      </trkpt>
      <trkpt lat="36.367980" lon="-116.845740">
        <ele>-15.883</ele>
        <time>2018-12-28T00:50:22Z</time>
      </trkpt>
      <trkpt lat="36.367620" lon="-116.845590">
        <ele>-15.611</ele>
        <time>2018-12-28T00:50:42Z</time>
      </trkpt>
      <trkpt lat="36.367090" lon="-116.845390">
        <ele>-15.508</ele>
        <time>2018-12-28T00:51:02Z</time>
      </trkpt>
      <trkpt lat="36.366440" lon="-116.845120">
        <ele>-15.739</ele>
        <time>2018-12-28T00:51:22Z</time>
      </trkpt>
      <trkpt lat="36.365890" lon="-116.844900">
        <ele>-16.667</ele>
        <time>2018-12-28T00:51:42Z</time>
      </trkpt>
      <trkpt lat="36.365430" lon="-116.844720">
        <ele>-17.512</ele>
        <time>2018-12-28T00:52:02Z</time>
      </trkpt>
      <trkpt lat="36.364990" lon="-116.844540">
        <ele>-18.553</ele>
        <time>2018-12-28T00:52:22Z</time>
      </trkpt>
      <trkpt lat="36.364340" lon="-116.844270">
        <ele>-20.437</ele>
        <time>2018-12-28T00:52:42Z</time>
      </trkpt>
      <trkpt lat="36.363740" lon="-116.844030">
        <ele>-22.886</ele>
        <time>2018-12-28T00:53:02Z</time>
      </trkpt>
      <trkpt lat="36.363260" lon="-116.843840">
        <ele>-23.965</ele>
        <time>2018-12-28T00:53:22Z</time>
      </trkpt>
      <trkpt lat="36.362730" lon="-116.843620">
        <ele>-25.455</ele>
        <time>2018-12-28T00:53:42Z</time>
      </trkpt>
      <trkpt lat="36.362160" lon="-116.843400">
        <ele>-26.013</ele>
        <time>2018-12-28T00:54:02Z</time>
      </trkpt>
      <trkpt lat="36.361670" lon="-116.843200">
        <ele>-26.443</ele>
        <time>2018-12-28T00:54:22Z</time>
      </trkpt>
      <trkpt lat="36.361210" lon="-116.843030">
        <ele>-26.807</ele>
        <time>2018-12-28T00:54:42Z</time>
      </trkpt>
      <trkpt lat="36.360530" lon="-116.842760">
        <ele>-27.808</ele>
        <time>2018-12-28T00:55:02Z</time>
      </trkpt>
      <trkpt lat="36.359820" lon="-116.842480">
        <ele>-29.894</ele>
        <time>2018-12-28T00:55:22Z</time>
      </trkpt>
      <trkpt lat="36.359280" lon="-116.842260">
        <ele>-31.662</ele>
        <time>2018-12-28T00:55:42Z</time>
      </trkpt>
      <trkpt lat="36.358510" lon="-116.841950">
        <ele>-34.647</ele>
        <time>2018-12-28T00:56:02Z</time>
      </trkpt>
      <trkpt lat="36.357750" lon="-116.841640">
        <ele>-38.538</ele>
        <time>2018-12-28T00:56:22Z</time>
      </trkpt>
      <trkpt lat="36.357260" lon="-116.841450">
        <ele>-40.352</ele>
        <time>2018-12-28T00:56:42Z</time>
      </trkpt>
      <trkpt lat="36.356440" lon="-116.841120">
        <ele>-42.741</ele>
        <time>2018-12-28T00:57:02Z</time>
      </trkpt>
      <trkpt lat="36.355820" lon="-116.840880">
        <ele>-44.310</ele>
        <time>2018-12-28T00:57:22Z</time>
      </trkpt>
      <trkpt lat="36.355060" lon="-116.840570">
        <ele>-46.190</ele>
        <time>2018-12-28T00:57:42Z</time>
      </trkpt>
      <trkpt lat="36.354620" lon="-116.840390">
        <ele>-46.772</ele>
        <time>2018-12-28T00:58:02Z</time>
      </trkpt>
      <trkpt lat="36.354190" lon="-116.840220">
        <ele>-47.013</ele>
        <time>2018-12-28T00:58:22Z</time>
      </trkpt>
      <trkpt lat="36.353720" lon="-116.840030">
        <ele>-48.414</ele>
        <time>2018-12-28T00:58:42Z</time>
      </trkpt>
      <trkpt lat="36.353250" lon="-116.839850">
        <ele>-50.808</ele>
        <time>2018-12-28T00:59:02Z</time>
      </trkpt>
      <trkpt lat="36.352810" lon="-116.839670">
        <ele>-52.890</ele>
        <time>2018-12-28T00:59:22Z</time>
      </trkpt>
      <trkpt lat="36.352330" lon="-116.839490">
        <ele>-54.958</ele>
        <time>2018-12-28T00:59:42Z</time>
      </trkpt>
      <trkpt lat="36.351870" lon="-116.839300">
        <ele>-56.753</ele>
        <time>2018-12-28T01:00:02Z</time>
      </trkpt>
      <trkpt lat="36.351390" lon="-116.839120">
        <ele>-58.454</ele>
        <time>2018-12-28T01:00:22Z</time>
      </trkpt>
      <trkpt lat="36.350960" lon="-116.838930">
        <ele>-58.868</ele>
        <time>2018-12-28T01:00:42Z</time>
      </trkpt>
      <trkpt lat="36.350440" lon="-116.838720">
        <ele>-59.127</ele>
        <time>2018-12-28T01:01:02Z</time>
      </trkpt>
      <trkpt lat="36.349980" lon="-116.838530">
        <ele>-59.356</ele>
        <time>2018-12-28T01:01:22Z</time>
      </trkpt>
      <trkpt lat="36.349500" lon="-116.838340">
        <ele>-59.496</ele>
        <time>2018-12-28T01:01:42Z</time>
      </trkpt>
      <trkpt lat="36.349100" lon="-116.838180">
        <ele>-59.429</ele>
        <time>2018-12-28T01:02:02Z</time>
      </trkpt>
      <trkpt lat="36.348610" lon="-116.837990">
        <ele>-59.600</ele>
        <time>2018-12-28T01:02:22Z</time>
      </trkpt>
      <trkpt lat="36.348200" lon="-116.837820">
        <ele>-59.620</ele>
        <time>2018-12-28T01:02:42Z</time>
      </trkpt>
      <trkpt lat="36.347950" lon="-116.837720">
        <ele>-59.308</ele>
        <time>2018-12-28T01:03:02Z</time>
      </trkpt>
      <trkpt lat="36.347470" lon="-116.837530">
        <ele>-58.615</ele>
        <time>2018-12-28T01:03:22Z</time>
      </trkpt>
      <trkpt lat="36.346960" lon="-116.837330">
        <ele>-57.863</ele>
        <time>2018-12-28T01:03:42Z</time>
      </trkpt>
      <trkpt lat="36.346580" lon="-116.837180">
        <ele>-57.448</ele>
        <time>2018-12-28T01:04:02Z</time>
      </trkpt>
      <trkpt lat="36.346060" lon="-116.836970">
        <ele>-56.979</ele>
        <time>2018-12-28T01:04:22Z</time>
      </trkpt>
      <trkpt lat="36.345370" lon="-116.836700">
        <ele>-56.723</ele>
        <time>2018-12-28T01:04:42Z</time>
      </trkpt>
      <trkpt lat="36.344800" lon="-116.836480">
        <ele>-56.682</ele>
        <time>2018-12-28T01:05:02Z</time>
      </trkpt>
      <trkpt lat="36.344000" lon="-116.836170">
        <ele>-55.851</ele>
        <time>2018-12-28T01:05:22Z</time>
      </trkpt>
      <trkpt lat="36.343390" lon="-116.835930">
        <ele>-53.971</ele>
        <time>2018-12-28T01:05:42Z</time>
      </trkpt>
      <trkpt lat="36.342780" lon="-116.835680">
        <ele>-50.253</ele>
        <time>2018-12-28T01:06:02Z</time>
      </trkpt>
      <trkpt lat="36.342320" lon="-116.835500">
        <ele>-49.704</ele>
        <time>2018-12-28T01:06:22Z</time>
      </trkpt>
      <trkpt lat="36.341890" lon="-116.835330">
        <ele>-47.814</ele>
        <time>2018-12-28T01:06:42Z</time>
      </trkpt>
      <trkpt lat="36.341450" lon="-116.835140">
        <ele>-45.708</ele>
        <time>2018-12-28T01:07:02Z</time>
      </trkpt>
      <trkpt lat="36.341030" lon="-116.834980">
        <ele>-44.198</ele>
        <time>2018-12-28T01:07:22Z</time>
      </trkpt>
      <trkpt lat="36.340630" lon="-116.834820">
        <ele>-42.926</ele>
        <time>2018-12-28T01:07:42Z</time>
      </trkpt>
      <trkpt lat="36.340210" lon="-116.834650">
        <ele>-41.371</ele>
        <time>2018-12-28T01:08:02Z</time>
      </trkpt>
      <trkpt lat="36.339790" lon="-116.834480">
        <ele>-39.562</ele>
        <time>2018-12-28T01:08:22Z</time>
      </trkpt>
      <trkpt lat="36.339320" lon="-116.834290">
        <ele>-37.356</ele>
        <time>2018-12-28T01:08:42Z</time>
      </trkpt>
      <trkpt lat="36.338900" lon="-116.834130">
        <ele>-36.075</ele>
        <time>2018-12-28T01:09:02Z</time>
      </trkpt>
      <trkpt lat="36.338450" lon="-116.833950">
        <ele>-34.654</ele>
        <time>2018-12-28T01:09:22Z</time>
      </trkpt>
      <trkpt lat="36.338070" lon="-116.833790">
        <ele>-34.094</ele>
        <time>2018-12-28T01:09:42Z</time>
      </trkpt>
      <trkpt lat="36.337680" lon="-116.833640">
        <ele>-33.545</ele>
        <time>2018-12-28T01:10:02Z</time>
      </trkpt>
      <trkpt lat="36.337310" lon="-116.833500">
        <ele>-33.247</ele>
        <time>2018-12-28T01:10:22Z</time>
      </trkpt>
      <trkpt lat="36.337070" lon="-116.833400">
        <ele>-33.011</ele>
        <time>2018-12-28T01:10:42Z</time>
      </trkpt>
      <trkpt lat="36.336710" lon="-116.833250">
        <ele>-32.808</ele>
        <time>2018-12-28T01:11:02Z</time>
      </trkpt>
      <trkpt lat="36.336330" lon="-116.833100">
        <ele>-32.827</ele>
        <time>2018-12-28T01:11:22Z</time>
      </trkpt>
      <trkpt lat="36.335950" lon="-116.832960">
        <ele>-32.895</ele>
        <time>2018-12-28T01:11:42Z</time>
      </trkpt>
      <trkpt lat="36.335530" lon="-116.832790">
        <ele>-33.050</ele>
        <time>2018-12-28T01:12:02Z</time>
      </trkpt>
      <trkpt lat="36.335040" lon="-116.832590">
        <ele>-33.441</ele>
        <time>2018-12-28T01:12:22Z</time>
      </trkpt>
      <trkpt lat="36.334670" lon="-116.832440">
        <ele>-33.865</ele>
        <time>2018-12-28T01:12:42Z</time>
      </trkpt>
      <trkpt lat="36.334300" lon="-116.832290">
        <ele>-34.054</ele>
        <time>2018-12-28T01:13:02Z</time>
      </trkpt>
      <trkpt lat="36.333910" lon="-116.832110">
        <ele>-34.173</ele>
        <time>2018-12-28T01:13:22Z</time>
      </trkpt>
      <trkpt lat="36.333510" lon="-116.831920">
        <ele>-34.253</ele>
        <time>2018-12-28T01:13:42Z</time>
      </trkpt>
      <trkpt lat="36.333110" lon="-116.831730">
        <ele>-34.399</ele>
        <time>2018-12-28T01:14:02Z</time>
      </trkpt>
      <trkpt lat="36.332730" lon="-116.831540">
        <ele>-34.707</ele>
        <time>2018-12-28T01:14:22Z</time>
      </trkpt>
      <trkpt lat="36.332210" lon="-116.831270">
        <ele>-35.227</ele>
        <time>2018-12-28T01:14:42Z</time>
      </trkpt>
      <trkpt lat="36.331870" lon="-116.831080">
        <ele>-36.608</ele>
        <time>2018-12-28T01:15:02Z</time>
      </trkpt>
      <trkpt lat="36.331470" lon="-116.830850">
        <ele>-37.732</ele>
        <time>2018-12-28T01:15:22Z</time>
      </trkpt>
      <trkpt lat="36.331110" lon="-116.830640">
        <ele>-37.280</ele>
        <time>2018-12-28T01:15:42Z</time>
      </trkpt>
      <trkpt lat="36.330670" lon="-116.830400">
        <ele>-39.655</ele>
        <time>2018-12-28T01:16:02Z</time>
      </trkpt>
      <trkpt lat="36.330220" lon="-116.830140">
        <ele>-41.466</ele>
        <time>2018-12-28T01:16:22Z</time>
      </trkpt>
      <trkpt lat="36.330010" lon="-116.830020">
        <ele>-41.710</ele>
        <time>2018-12-28T01:16:42Z</time>
      </trkpt>
      <trkpt lat="36.329940" lon="-116.829980">
        <ele>-41.759</ele>
        <time>2018-12-28T01:17:02Z</time>
      </trkpt>
      <trkpt lat="36.329620" lon="-116.829790">
        <ele>-42.188</ele>
        <time>2018-12-28T01:17:22Z</time>
      </trkpt>
      <trkpt lat="36.329040" lon="-116.829450">
        <ele>-43.148</ele>
        <time>2018-12-28T01:17:42Z</time>
      </trkpt>
      <trkpt lat="36.328560" lon="-116.829170">
        <ele>-44.654</ele>
        <time>2018-12-28T01:18:02Z</time>
      </trkpt>
      <trkpt lat="36.328110" lon="-116.828910">
        <ele>-46.056</ele>
        <time>2018-12-28T01:18:22Z</time>
      </trkpt>
      <trkpt lat="36.327730" lon="-116.828690">
        <ele>-47.011</ele>
        <time>2018-12-28T01:18:42Z</time>
      </trkpt>
      <trkpt lat="36.327280" lon="-116.828430">
        <ele>-48.608</ele>
        <time>2018-12-28T01:19:02Z</time>
      </trkpt>
      <trkpt lat="36.326780" lon="-116.828140">
        <ele>-48.948</ele>
        <time>2018-12-28T01:19:22Z</time>
      </trkpt>
      <trkpt lat="36.325380" lon="-116.827310">
        <ele>-50.496</ele>
        <time>2018-12-28T01:19:42Z</time>
      </trkpt>
      <trkpt lat="36.324870" lon="-116.827020">
        <ele>-50.751</ele>
        <time>2018-12-28T01:20:02Z</time>
      </trkpt>
      <trkpt lat="36.324080" lon="-116.826560">
        <ele>-52.132</ele>
        <time>2018-12-28T01:20:22Z</time>
      </trkpt>
      <trkpt lat="36.323680" lon="-116.826320">
        <ele>-52.756</ele>
        <time>2018-12-28T01:20:42Z</time>
      </trkpt>
      <trkpt lat="36.322670" lon="-116.825740">
        <ele>-53.515</ele>
        <time>2018-12-28T01:21:02Z</time>
      </trkpt>
      <trkpt lat="36.321580" lon="-116.825100">
        <ele>-53.134</ele>
        <time>2018-12-28T01:21:22Z</time>
      </trkpt>
      <trkpt lat="36.321070" lon="-116.824800">
        <ele>-52.674</ele>
        <time>2018-12-28T01:21:42Z</time>
      </trkpt>
      <trkpt lat="36.319890" lon="-116.824110">
        <ele>-51.075</ele>
        <time>2018-12-28T01:22:02Z</time>
      </trkpt>
      <trkpt lat="36.319280" lon="-116.823760">
        <ele>-50.528</ele>
        <time>2018-12-28T01:22:22Z</time>
      </trkpt>
      <trkpt lat="36.318480" lon="-116.823300">
        <ele>-49.320</ele>
        <time>2018-12-28T01:22:42Z</time>
      </trkpt>
      <trkpt lat="36.317890" lon="-116.822950">
        <ele>-48.508</ele>
        <time>2018-12-28T01:23:02Z</time>
      </trkpt>
      <trkpt lat="36.316900" lon="-116.822380">
        <ele>-46.820</ele>
        <time>2018-12-28T01:23:22Z</time>
      </trkpt>
      <trkpt lat="36.316190" lon="-116.821970">
        <ele>-46.698</ele>
        <time>2018-12-28T01:23:42Z</time>
      </trkpt>
      <trkpt lat="36.315710" lon="-116.821690">
        <ele>-46.673</ele>
        <time>2018-12-28T01:24:02Z</time>
      </trkpt>
      <trkpt lat="36.315190" lon="-116.821390">
        <ele>-46.034</ele>
        <time>2018-12-28T01:24:22Z</time>
      </trkpt>
      <trkpt lat="36.314380" lon="-116.820920">
        <ele>-46.228</ele>
        <time>2018-12-28T01:24:42Z</time>
      </trkpt>
      <trkpt lat="36.313760" lon="-116.820560">
        <ele>-46.927</ele>
        <time>2018-12-28T01:25:02Z</time>
      </trkpt>
      <trkpt lat="36.313600" lon="-116.820470">
        <ele>-46.926</ele>
        <time>2018-12-28T01:25:22Z</time>
      </trkpt>
      <trkpt lat="36.312890" lon="-116.820060">
        <ele>-49.296</ele>
        <time>2018-12-28T01:25:42Z</time>
      </trkpt>
      <trkpt lat="36.311070" lon="-116.819010">
        <ele>-50.858</ele>
        <time>2018-12-28T01:26:02Z</time>
      </trkpt>
      <trkpt lat="36.310090" lon="-116.818430">
        <ele>-51.552</ele>
        <time>2018-12-28T01:26:22Z</time>
      </trkpt>
      <trkpt lat="36.309320" lon="-116.817990">
        <ele>-52.317</ele>
        <time>2018-12-28T01:26:42Z</time>
      </trkpt>
      <trkpt lat="36.308900" lon="-116.817740">
        <ele>-52.708</ele>
        <time>2018-12-28T01:27:02Z</time>
      </trkpt>
      <trkpt lat="36.308400" lon="-116.817460">
        <ele>-53.348</ele>
        <time>2018-12-28T01:27:22Z</time>
      </trkpt>
      <trkpt lat="36.307900" lon="-116.817160">
        <ele>-54.056</ele>
        <time>2018-12-28T01:27:42Z</time>
      </trkpt>
      <trkpt lat="36.307580" lon="-116.816980">
        <ele>-54.561</ele>
        <time>2018-12-28T01:28:02Z</time>
      </trkpt>
      <trkpt lat="36.306990" lon="-116.816630">
        <ele>-55.672</ele>
        <time>2018-12-28T01:28:22Z</time>
      </trkpt>
      <trkpt lat="36.306500" lon="-116.816350">
        <ele>-56.476</ele>
        <time>2018-12-28T01:28:42Z</time>
      </trkpt>
      <trkpt lat="36.305990" lon="-116.816050">
        <ele>-57.245</ele>
        <time>2018-12-28T01:29:02Z</time>
      </trkpt>
      <trkpt lat="36.305290" lon="-116.815640">
        <ele>-58.594</ele>
        <time>2018-12-28T01:29:22Z</time>
      </trkpt>
      <trkpt lat="36.304480" lon="-116.815170">
        <ele>-59.694</ele>
        <time>2018-12-28T01:29:42Z</time>
      </trkpt>
      <trkpt lat="36.303360" lon="-116.814520">
        <ele>-59.795</ele>
        <time>2018-12-28T01:30:02Z</time>
      </trkpt>
      <trkpt lat="36.302540" lon="-116.814040">
        <ele>-59.749</ele>
        <time>2018-12-28T01:30:22Z</time>
      </trkpt>
      <trkpt lat="36.301590" lon="-116.813490">
        <ele>-59.323</ele>
        <time>2018-12-28T01:30:42Z</time>
      </trkpt>
      <trkpt lat="36.301250" lon="-116.813290">
        <ele>-59.008</ele>
        <time>2018-12-28T01:31:02Z</time>
      </trkpt>
      <trkpt lat="36.300700" lon="-116.812970">
        <ele>-59.232</ele>
        <time>2018-12-28T01:31:22Z</time>
      </trkpt>
      <trkpt lat="36.300330" lon="-116.812760">
        <ele>-59.240</ele>
        <time>2018-12-28T01:31:42Z</time>
      </trkpt>
      <trkpt lat="36.299930" lon="-116.812530">
        <ele>-59.115</ele>
        <time>2018-12-28T01:32:02Z</time>
      </trkpt>
      <trkpt lat="36.298630" lon="-116.811780">
        <ele>-59.486</ele>
        <time>2018-12-28T01:32:22Z</time>
      </trkpt>
      <trkpt lat="36.297280" lon="-116.811000">
        <ele>-61.430</ele>
        <time>2018-12-28T01:32:42Z</time>
      </trkpt>
      <trkpt lat="36.295760" lon="-116.810110">
        <ele>-62.369</ele>
        <time>2018-12-28T01:33:02Z</time>
      </trkpt>
      <trkpt lat="36.293590" lon="-116.808840">
        <ele>-66.238</ele>
        <time>2018-12-28T01:33:22Z</time>
      </trkpt>
      <trkpt lat="36.289800" lon="-116.806640">
        <ele>-73.438</ele>
        <time>2018-12-28T01:33:42Z</time>
      </trkpt>
      <trkpt lat="36.288370" lon="-116.805810">
        <ele>-74.793</ele>
        <time>2018-12-28T01:34:02Z</time>
      </trkpt>
      <trkpt lat="36.280380" lon="-116.801160">
        <ele>-63.865</ele>
        <time>2018-12-28T01:34:22Z</time>
      </trkpt>
      <trkpt lat="36.279620" lon="-116.800710">
        <ele>-63.021</ele>
        <time>2018-12-28T01:34:42Z</time>
      </trkpt>
      <trkpt lat="36.279260" lon="-116.800490">
        <ele>-62.708</ele>
        <time>2018-12-28T01:35:02Z</time>
      </trkpt>
      <trkpt lat="36.278750" lon="-116.800100">
        <ele>-61.842</ele>
        <time>2018-12-28T01:35:22Z</time>
      </trkpt>
      <trkpt lat="36.278390" lon="-116.799800">
        <ele>-61.690</ele>
        <time>2018-12-28T01:35:42Z</time>
      </trkpt>
      <trkpt lat="36.277960" lon="-116.799380">
        <ele>-61.775</ele>
        <time>2018-12-28T01:36:02Z</time>
      </trkpt>
      <trkpt lat="36.277610" lon="-116.798990">
        <ele>-60.946</ele>
        <time>2018-12-28T01:36:22Z</time>
      </trkpt>
      <trkpt lat="36.277410" lon="-116.798750">
        <ele>-59.680</ele>
        <time>2018-12-28T01:36:42Z</time>
      </trkpt>
      <trkpt lat="36.277060" lon="-116.798270">
        <ele>-58.739</ele>
        <time>2018-12-28T01:37:02Z</time>
      </trkpt>
      <trkpt lat="36.276750" lon="-116.797790">
        <ele>-58.998</ele>
        <time>2018-12-28T01:37:22Z</time>
      </trkpt>
      <trkpt lat="36.276440" lon="-116.797250">
        <ele>-61.338</ele>
        <time>2018-12-28T01:37:42Z</time>
      </trkpt>
      <trkpt lat="36.276160" lon="-116.796730">
        <ele>-61.759</ele>
        <time>2018-12-28T01:38:02Z</time>
      </trkpt>
      <trkpt lat="36.275410" lon="-116.795360">
        <ele>-64.503</ele>
        <time>2018-12-28T01:38:22Z</time>
      </trkpt>
      <trkpt lat="36.274050" lon="-116.792860">
        <ele>-70.823</ele>
        <time>2018-12-28T01:38:42Z</time>
      </trkpt>
      <trkpt lat="36.273250" lon="-116.791400">
        <ele>-75.508</ele>
        <time>2018-12-28T01:39:02Z</time>
      </trkpt>
      <trkpt lat="36.272800" lon="-116.790610">
        <ele>-77.358</ele>
        <time>2018-12-28T01:39:22Z</time>
      </trkpt>
      <trkpt lat="36.272680" lon="-116.790410">
        <ele>-77.526</ele>
        <time>2018-12-28T01:39:42Z</time>
      </trkpt>
      <trkpt lat="36.272460" lon="-116.790040">
        <ele>-78.711</ele>
        <time>2018-12-28T01:40:02Z</time>
      </trkpt>
      <trkpt lat="36.272150" lon="-116.789590">
        <ele>-79.482</ele>
        <time>2018-12-28T01:40:22Z</time>
      </trkpt>
      <trkpt lat="36.271900" lon="-116.789230">
        <ele>-80.386</ele>
        <time>2018-12-28T01:40:42Z</time>
      </trkpt>
      <trkpt lat="36.271540" lon="-116.788750">
        <ele>-80.785</ele>
        <time>2018-12-28T01:41:02Z</time>
      </trkpt>
      <trkpt lat="36.271150" lon="-116.788250">
        <ele>-80.964</ele>
        <time>2018-12-28T01:41:22Z</time>
      </trkpt>
      <trkpt lat="36.270690" lon="-116.787700">
        <ele>-80.374</ele>
        <time>2018-12-28T01:41:42Z</time>
      </trkpt>
      <trkpt lat="36.270250" lon="-116.787240">
        <ele>-79.772</ele>
        <time>2018-12-28T01:42:02Z</time>
      </trkpt>
      <trkpt lat="36.269910" lon="-116.786890">
        <ele>-79.613</ele>
        <time>2018-12-28T01:42:22Z</time>
      </trkpt>
      <trkpt lat="36.269460" lon="-116.786470">
        <ele>-79.514</ele>
        <time>2018-12-28T01:42:42Z</time>
      </trkpt>
      <trkpt lat="36.269110" lon="-116.786160">
        <ele>-79.508</ele>
        <time>2018-12-28T01:43:02Z</time>
      </trkpt>
      <trkpt lat="36.268860" lon="-116.785950">
        <ele>-79.410</ele>
        <time>2018-12-28T01:43:22Z</time>
      </trkpt>
      <trkpt lat="36.268380" lon="-116.785560">
        <ele>-79.398</ele>
        <time>2018-12-28T01:43:42Z</time>
      </trkpt>
      <trkpt lat="36.266230" lon="-116.783890">
        <ele>-79.223</ele>
        <time>2018-12-28T01:44:02Z</time>
      </trkpt>
      <trkpt lat="36.264730" lon="-116.782730">
        <ele>-77.274</ele>
        <time>2018-12-28T01:44:22Z</time>
      </trkpt>
      <trkpt lat="36.262970" lon="-116.781360">
        <ele>-73.928</ele>
        <time>2018-12-28T01:44:42Z</time>
      </trkpt>
      <trkpt lat="36.262030" lon="-116.780630">
        <ele>-72.377</ele>
        <time>2018-12-28T01:45:02Z</time>
      </trkpt>
      <trkpt lat="36.261380" lon="-116.780120">
        <ele>-70.616</ele>
        <time>2018-12-28T01:45:22Z</time>
      </trkpt>
      <trkpt lat="36.260250" lon="-116.779250">
        <ele>-67.066</ele>
        <time>2018-12-28T01:45:42Z</time>
      </trkpt>
      <trkpt lat="36.258270" lon="-116.777700">
        <ele>-58.727</ele>
        <time>2018-12-28T01:46:02Z</time>
      </trkpt>
      <trkpt lat="36.257170" lon="-116.776860">
        <ele>-65.868</ele>
        <time>2018-12-28T01:46:22Z</time>
      </trkpt>
      <trkpt lat="36.256850" lon="-116.776610">
        <ele>-68.714</ele>
        <time>2018-12-28T01:46:42Z</time>
      </trkpt>
      <trkpt lat="36.256610" lon="-116.776420">
        <ele>-69.808</ele>
        <time>2018-12-28T01:47:02Z</time>
      </trkpt>
      <trkpt lat="36.256330" lon="-116.776200">
        <ele>-71.095</ele>
        <time>2018-12-28T01:47:22Z</time>
      </trkpt>
      <trkpt lat="36.256060" lon="-116.776000">
        <ele>-74.183</ele>
        <time>2018-12-28T01:47:42Z</time>
      </trkpt>
      <trkpt lat="36.255800" lon="-116.775800">
        <ele>-76.868</ele>
        <time>2018-12-28T01:48:02Z</time>
      </trkpt>
      <trkpt lat="36.255530" lon="-116.775590">
        <ele>-78.889</ele>
        <time>2018-12-28T01:48:22Z</time>
      </trkpt>
      <trkpt lat="36.255300" lon="-116.775420">
        <ele>-80.323</ele>
        <time>2018-12-28T01:48:42Z</time>
      </trkpt>
      <trkpt lat="36.255110" lon="-116.775290">
        <ele>-80.772</ele>
        <time>2018-12-28T01:49:02Z</time>
      </trkpt>
      <trkpt lat="36.254980" lon="-116.775200">
        <ele>-80.641</ele>
        <time>2018-12-28T01:49:22Z</time>
      </trkpt>
      <trkpt lat="36.254790" lon="-116.775070">
        <ele>-80.491</ele>
        <time>2018-12-28T01:49:42Z</time>
      </trkpt>
      <trkpt lat="36.254590" lon="-116.774950">
        <ele>-80.187</ele>
        <time>2018-12-28T01:50:02Z</time>
      </trkpt>
      <trkpt lat="36.254460" lon="-116.774870">
        <ele>-79.942</ele>
        <time>2018-12-28T01:50:22Z</time>
      </trkpt>
      <trkpt lat="36.254290" lon="-116.774770">
        <ele>-79.726</ele>
        <time>2018-12-28T01:50:42Z</time>
      </trkpt>
      <trkpt lat="36.254130" lon="-116.774680">
        <ele>-80.108</ele>
        <time>2018-12-28T01:51:02Z</time>
      </trkpt>
      <trkpt lat="36.253990" lon="-116.774610">
        <ele>-80.621</ele>
        <time>2018-12-28T01:51:22Z</time>
      </trkpt>
      <trkpt lat="36.253800" lon="-116.774510">
        <ele>-81.439</ele>
        <time>2018-12-28T01:51:42Z</time>
      </trkpt>
      <trkpt lat="36.253700" lon="-116.774460">
        <ele>-81.784</ele>
        <time>2018-12-28T01:52:02Z</time>
      </trkpt>
      <trkpt lat="36.253590" lon="-116.774410">
        <ele>-81.825</ele>
        <time>2018-12-28T01:52:22Z</time>
      </trkpt>
      <trkpt lat="36.253360" lon="-116.774310">
        <ele>-82.019</ele>
        <time>2018-12-28T01:52:42Z</time>
      </trkpt>
      <trkpt lat="36.253160" lon="-116.774230">
        <ele>-82.058</ele>
        <time>2018-12-28T01:53:02Z</time>
      </trkpt>
      <trkpt lat="36.252940" lon="-116.774150">
        <ele>-82.187</ele>
        <time>2018-12-28T01:53:22Z</time>
      </trkpt>
      <trkpt lat="36.252740" lon="-116.774070">
        <ele>-81.697</ele>
        <time>2018-12-28T01:53:42Z</time>
      </trkpt>
      <trkpt lat="36.252540" lon="-116.774010">
        <ele>-80.914</ele>
        <time>2018-12-28T01:54:02Z</time>
      </trkpt>
      <trkpt lat="36.252330" lon="-116.773950">
        <ele>-80.054</ele>
        <time>2018-12-28T01:54:22Z</time>
      </trkpt>
      <trkpt lat="36.252220" lon="-116.773920">
        <ele>-79.609</ele>
        <time>2018-12-28T01:54:42Z</time>
      </trkpt>
      <trkpt lat="36.252000" lon="-116.773860">
        <ele>-79.408</ele>
        <time>2018-12-28T01:55:02Z</time>
      </trkpt>
      <trkpt lat="36.251790" lon="-116.773810">
        <ele>-80.164</ele>
        <time>2018-12-28T01:55:22Z</time>
      </trkpt>
      <trkpt lat="36.251570" lon="-116.773760">
        <ele>-80.012</ele>
        <time>2018-12-28T01:55:42Z</time>
      </trkpt>
      <trkpt lat="36.251350" lon="-116.773710">
        <ele>-79.237</ele>
        <time>2018-12-28T01:56:02Z</time>
      </trkpt>
      <trkpt lat="36.251030" lon="-116.773650">
        <ele>-78.718</ele>
        <time>2018-12-28T01:56:22Z</time>
      </trkpt>
      <trkpt lat="36.250710" lon="-116.773590">
        <ele>-79.062</ele>
        <time>2018-12-28T01:56:42Z</time>
      </trkpt>
      <trkpt lat="36.250380" lon="-116.773530">
        <ele>-76.711</ele>
        <time>2018-12-28T01:57:02Z</time>
      </trkpt>
      <trkpt lat="36.250050" lon="-116.773460">
        <ele>-76.070</ele>
        <time>2018-12-28T01:57:22Z</time>
      </trkpt>
      <trkpt lat="36.249700" lon="-116.773400">
        <ele>-75.490</ele>
        <time>2018-12-28T01:57:42Z</time>
      </trkpt>
      <trkpt lat="36.249260" lon="-116.773320">
        <ele>-75.276</ele>
        <time>2018-12-28T01:58:02Z</time>
      </trkpt>
      <trkpt lat="36.248820" lon="-116.773240">
        <ele>-76.190</ele>
        <time>2018-12-28T01:58:22Z</time>
      </trkpt>
      <trkpt lat="36.248400" lon="-116.773150">
        <ele>-76.119</ele>
        <time>2018-12-28T01:58:42Z</time>
      </trkpt>
      <trkpt lat="36.248040" lon="-116.773080">
        <ele>-76.008</ele>
        <time>2018-12-28T01:59:02Z</time>
      </trkpt>
      <trkpt lat="36.247700" lon="-116.773020">
        <ele>-75.930</ele>
        <time>2018-12-28T01:59:22Z</time>
      </trkpt>
      <trkpt lat="36.247450" lon="-116.772960">
        <ele>-75.858</ele>
        <time>2018-12-28T01:59:42Z</time>
      </trkpt>
      <trkpt lat="36.247180" lon="-116.772910">
        <ele>-76.083</ele>
        <time>2018-12-28T02:00:02Z</time>
      </trkpt>
      <trkpt lat="36.246820" lon="-116.772840">
        <ele>-76.324</ele>
        <time>2018-12-28T02:00:22Z</time>
      </trkpt>
      <trkpt lat="36.246500" lon="-116.772770">
        <ele>-76.578</ele>
        <time>2018-12-28T02:00:42Z</time>
      </trkpt>
      <trkpt lat="36.246190" lon="-116.772720">
        <ele>-77.117</ele>
        <time>2018-12-28T02:01:02Z</time>
      </trkpt>
      <trkpt lat="36.245900" lon="-116.772660">
        <ele>-76.886</ele>
        <time>2018-12-28T02:01:22Z</time>
      </trkpt>
      <trkpt lat="36.245580" lon="-116.772600">
        <ele>-76.486</ele>
        <time>2018-12-28T02:01:42Z</time>
      </trkpt>
      <trkpt lat="36.245280" lon="-116.772540">
        <ele>-76.299</ele>
        <time>2018-12-28T02:02:02Z</time>
      </trkpt>
      <trkpt lat="36.245030" lon="-116.772500">
        <ele>-76.407</ele>
        <time>2018-12-28T02:02:22Z</time>
      </trkpt>
      <trkpt lat="36.244810" lon="-116.772450">
        <ele>-76.427</ele>
        <time>2018-12-28T02:02:42Z</time>
      </trkpt>
      <trkpt lat="36.244490" lon="-116.772390">
        <ele>-76.408</ele>
        <time>2018-12-28T02:03:02Z</time>
      </trkpt>
      <trkpt lat="36.244070" lon="-116.772310">
        <ele>-76.392</ele>
        <time>2018-12-28T02:03:22Z</time>
      </trkpt>
      <trkpt lat="36.243720" lon="-116.772250">
        <ele>-76.870</ele>
        <time>2018-12-28T02:03:42Z</time>
      </trkpt>
      <trkpt lat="36.243390" lon="-116.772180">
        <ele>-77.125</ele>
        <time>2018-12-28T02:04:02Z</time>
      </trkpt>
      <trkpt lat="36.243060" lon="-116.772120">
        <ele>-76.736</ele>
        <time>2018-12-28T02:04:22Z</time>
      </trkpt>
      <trkpt lat="36.242730" lon="-116.772060">
        <ele>-76.590</ele>
        <time>2018-12-28T02:04:42Z</time>
      </trkpt>
      <trkpt lat="36.242410" lon="-116.772000">
        <ele>-76.479</ele>
        <time>2018-12-28T02:05:02Z</time>
      </trkpt>
      <trkpt lat="36.242100" lon="-116.771930">
        <ele>-76.468</ele>
        <time>2018-12-28T02:05:22Z</time>
      </trkpt>
      <trkpt lat="36.241860" lon="-116.771890">
        <ele>-76.598</ele>
        <time>2018-12-28T02:05:42Z</time>
      </trkpt>
      <trkpt lat="36.241590" lon="-116.771830">
        <ele>-76.579</ele>
        <time>2018-12-28T02:06:02Z</time>
      </trkpt>
      <trkpt lat="36.241310" lon="-116.771750">
        <ele>-76.605</ele>
        <time>2018-12-28T02:06:22Z</time>
      </trkpt>
      <trkpt lat="36.241040" lon="-116.771670">
        <ele>-76.725</ele>
        <time>2018-12-28T02:06:42Z</time>
      </trkpt>
      <trkpt lat="36.240840" lon="-116.771590">
        <ele>-76.608</ele>
        <time>2018-12-28T02:07:02Z</time>
      </trkpt>
      <trkpt lat="36.240660" lon="-116.771520">
        <ele>-76.470</ele>
        <time>2018-12-28T02:07:22Z</time>
      </trkpt>
      <trkpt lat="36.240390" lon="-116.771410">
        <ele>-76.388</ele>
        <time>2018-12-28T02:07:42Z</time>
      </trkpt>
      <trkpt lat="36.240260" lon="-116.771350">
        <ele>-76.393</ele>
        <time>2018-12-28T02:08:02Z</time>
      </trkpt>
      <trkpt lat="36.240140" lon="-116.771280">
        <ele>-76.344</ele>
        <time>2018-12-28T02:08:22Z</time>
      </trkpt>
      <trkpt lat="36.240040" lon="-116.771230">
        <ele>-76.278</ele>
        <time>2018-12-28T02:08:42Z</time>
      </trkpt>
      <trkpt lat="36.239910" lon="-116.771160">
        <ele>-76.267</ele>
        <time>2018-12-28T02:09:02Z</time>
      </trkpt>
      <trkpt lat="36.239730" lon="-116.771060">
        <ele>-76.226</ele>
        <time>2018-12-28T02:09:22Z</time>
      </trkpt>
      <trkpt lat="36.239640" lon="-116.771000">
        <ele>-76.236</ele>
        <time>2018-12-28T02:09:42Z</time>
      </trkpt>
      <trkpt lat="36.239320" lon="-116.770790">
        <ele>-76.136</ele>
        <time>2018-12-28T02:10:02Z</time>
      </trkpt>
      <trkpt lat="36.239110" lon="-116.770650">
        <ele>-76.117</ele>
        <time>2018-12-28T02:10:22Z</time>
      </trkpt>
      <trkpt lat="36.238850" lon="-116.770470">
        <ele>-76.118</ele>
        <time>2018-12-28T02:10:42Z</time>
      </trkpt>
      <trkpt lat="36.238660" lon="-116.770330">
        <ele>-76.008</ele>
        <time>2018-12-28T02:11:02Z</time>
      </trkpt>
      <trkpt lat="36.238540" lon="-116.770250">
        <ele>-75.936</ele>
        <time>2018-12-28T02:11:22Z</time>
      </trkpt>
      <trkpt lat="36.238350" lon="-116.770110">
        <ele>-75.864</ele>
        <time>2018-12-28T02:11:42Z</time>
      </trkpt>
      <trkpt lat="36.238090" lon="-116.769930">
        <ele>-75.879</ele>
        <time>2018-12-28T02:12:02Z</time>
      </trkpt>
      <trkpt lat="36.237700" lon="-116.769660">
        <ele>-75.860</ele>
        <time>2018-12-28T02:12:22Z</time>
      </trkpt>
      <trkpt lat="36.237390" lon="-116.769440">
        <ele>-76.024</ele>
        <time>2018-12-28T02:12:42Z</time>
      </trkpt>
      <trkpt lat="36.237120" lon="-116.769260">
        <ele>-76.183</ele>
        <time>2018-12-28T02:13:02Z</time>
      </trkpt>
      <trkpt lat="36.236820" lon="-116.769040">
        <ele>-76.422</ele>
        <time>2018-12-28T02:13:22Z</time>
      </trkpt>
      <trkpt lat="36.236520" lon="-116.768840">
        <ele>-77.262</ele>
        <time>2018-12-28T02:13:42Z</time>
      </trkpt>
      <trkpt lat="36.236260" lon="-116.768650">
        <ele>-77.564</ele>
        <time>2018-12-28T02:14:02Z</time>
      </trkpt>
      <trkpt lat="36.235970" lon="-116.768450">
        <ele>-77.706</ele>
        <time>2018-12-28T02:14:22Z</time>
      </trkpt>
      <trkpt lat="36.235660" lon="-116.768240">
        <ele>-78.916</ele>
        <time>2018-12-28T02:14:42Z</time>
      </trkpt>
      <trkpt lat="36.235380" lon="-116.768050">
        <ele>-79.108</ele>
        <time>2018-12-28T02:15:02Z</time>
      </trkpt>
      <trkpt lat="36.235000" lon="-116.767790">
        <ele>-78.059</ele>
        <time>2018-12-28T02:15:22Z</time>
      </trkpt>
      <trkpt lat="36.234710" lon="-116.767580">
        <ele>-77.667</ele>
        <time>2018-12-28T02:15:42Z</time>
      </trkpt>
      <trkpt lat="36.234620" lon="-116.767520">
        <ele>-77.572</ele>
        <time>2018-12-28T02:16:02Z</time>
      </trkpt>
      <trkpt lat="36.234430" lon="-116.767380">
        <ele>-77.463</ele>
        <time>2018-12-28T02:16:22Z</time>
      </trkpt>
      <trkpt lat="36.234240" lon="-116.767250">
        <ele>-77.297</ele>
        <time>2018-12-28T02:16:42Z</time>
      </trkpt>
      <trkpt lat="36.234020" lon="-116.767090">
        <ele>-76.916</ele>
        <time>2018-12-28T02:17:02Z</time>
      </trkpt>
      <trkpt lat="36.233850" lon="-116.766980">
        <ele>-76.595</ele>
        <time>2018-12-28T02:17:22Z</time>
      </trkpt>
      <trkpt lat="36.233760" lon="-116.766920">
        <ele>-76.425</ele>
        <time>2018-12-28T02:17:42Z</time>
      </trkpt>
      <trkpt lat="36.233540" lon="-116.766760">
        <ele>-76.226</ele>
        <time>2018-12-28T02:18:02Z</time>
      </trkpt>
      <trkpt lat="36.233270" lon="-116.766580">
        <ele>-76.047</ele>
        <time>2018-12-28T02:18:22Z</time>
      </trkpt>
      <trkpt lat="36.233060" lon="-116.766440">
        <ele>-75.911</ele>
        <time>2018-12-28T02:18:42Z</time>
      </trkpt>
      <trkpt lat="36.232920" lon="-116.766340">
        <ele>-76.108</ele>
        <time>2018-12-28T02:19:02Z</time>
      </trkpt>
      <trkpt lat="36.232760" lon="-116.766230">
        <ele>-76.045</ele>
        <time>2018-12-28T02:19:22Z</time>
      </trkpt>
      <trkpt lat="36.232640" lon="-116.766160">
        <ele>-75.873</ele>
        <time>2018-12-28T02:19:42Z</time>
      </trkpt>
      <trkpt lat="36.232480" lon="-116.766090">
        <ele>-75.858</ele>
        <time>2018-12-28T02:20:02Z</time>
      </trkpt>
      <trkpt lat="36.232380" lon="-116.766050">
        <ele>-75.979</ele>
        <time>2018-12-28T02:20:22Z</time>
      </trkpt>
      <trkpt lat="36.232300" lon="-116.766020">
        <ele>-75.963</ele>
        <time>2018-12-28T02:20:42Z</time>
      </trkpt>
      <trkpt lat="36.232220" lon="-116.766000">
        <ele>-75.932</ele>
        <time>2018-12-28T02:21:02Z</time>
      </trkpt>
      <trkpt lat="36.232110" lon="-116.765970">
        <ele>-75.981</ele>
        <time>2018-12-28T02:21:22Z</time>
      </trkpt>
      <trkpt lat="36.232000" lon="-116.765950">
        <ele>-75.711</ele>
        <time>2018-12-28T02:21:42Z</time>
      </trkpt>
      <trkpt lat="36.231880" lon="-116.765940">
        <ele>-75.651</ele>
        <time>2018-12-28T02:22:02Z</time>
      </trkpt>
      <trkpt lat="36.231790" lon="-116.765930">
        <ele>-75.501</ele>
        <time>2018-12-28T02:22:22Z</time>
      </trkpt>
      <trkpt lat="36.231710" lon="-116.765930">
        <ele>-75.411</ele>
        <time>2018-12-28T02:22:42Z</time>
      </trkpt>
      <trkpt lat="36.231560" lon="-116.765940">
        <ele>-75.308</ele>
        <time>2018-12-28T02:23:02Z</time>
      </trkpt>
      <trkpt lat="36.231430" lon="-116.765950">
        <ele>-75.248</ele>
        <time>2018-12-28T02:23:22Z</time>
      </trkpt>
      <trkpt lat="36.231330" lon="-116.765970">
        <ele>-75.356</ele>
        <time>2018-12-28T02:23:42Z</time>
      </trkpt>
      <trkpt lat="36.231210" lon="-116.766000">
        <ele>-75.471</ele>
        <time>2018-12-28T02:24:02Z</time>
      </trkpt>
      <trkpt lat="36.231100" lon="-116.766040">
        <ele>-75.642</ele>
        <time>2018-12-28T02:24:22Z</time>
      </trkpt>
      <trkpt lat="36.230980" lon="-116.766090">
        <ele>-75.916</ele>
        <time>2018-12-28T02:24:42Z</time>
      </trkpt>
      <trkpt lat="36.230870" lon="-116.766140">
        <ele>-76.325</ele>
        <time>2018-12-28T02:25:02Z</time>
      </trkpt>
      <trkpt lat="36.230760" lon="-116.766210">
        <ele>-77.654</ele>
        <time>2018-12-28T02:25:22Z</time>
      </trkpt>
      <trkpt lat="36.230440" lon="-116.766430">
        <ele>-77.034</ele>
        <time>2018-12-28T02:25:42Z</time>
      </trkpt>
      <trkpt lat="36.230330" lon="-116.766530">
        <ele>-77.325</ele>
        <time>2018-12-28T02:26:02Z</time>
      </trkpt>
      <trkpt lat="36.229730" lon="-116.767040">
        <ele>-80.826</ele>
        <time>2018-12-28T02:26:22Z</time>
      </trkpt>
      <trkpt lat="36.229260" lon="-116.767440">
        <ele>-82.508</ele>
        <time>2018-12-28T02:26:42Z</time>
      </trkpt>
      <trkpt lat="36.229259" lon="-116.767444">
        <ele>-82.508</ele>
        <time>2018-12-28T02:27:02Z</time>
      </trkpt>
      <trkpt lat="36.229260" lon="-116.767450">
        <ele>-82.525</ele>
        <time>2018-12-28T02:27:22Z</time>
      </trkpt>
      <trkpt lat="36.229300" lon="-116.767510">
        <ele>-82.823</ele>
        <time>2018-12-28T02:27:42Z</time>
      </trkpt>
      <trkpt lat="36.229330" lon="-116.767540">
        <ele>-82.958</ele>
        <time>2018-12-28T02:28:02Z</time>
      </trkpt>
      <trkpt lat="36.229360" lon="-116.767550">
        <ele>-82.929</ele>
        <time>2018-12-28T02:28:22Z</time>
      </trkpt>
      <trkpt lat="36.229390" lon="-116.767560">
        <ele>-83.023</ele>
        <time>2018-12-28T02:28:42Z</time>
      </trkpt>
      <trkpt lat="36.229420" lon="-116.767560">
        <ele>-83.052</ele>
        <time>2018-12-28T02:29:02Z</time>
      </trkpt>
      <trkpt lat="36.229450" lon="-116.767550">
        <ele>-83.071</ele>
        <time>2018-12-28T02:29:22Z</time>
      </trkpt>
      <trkpt lat="36.229470" lon="-116.767540">
        <ele>-83.051</ele>
        <time>2018-12-28T02:29:42Z</time>
      </trkpt>
      <trkpt lat="36.229770" lon="-116.767290">
        <ele>-82.627</ele>
        <time>2018-12-28T02:30:02Z</time>
      </trkpt>
      <trkpt lat="36.230370" lon="-116.766800">
        <ele>-80.968</ele>
        <time>2018-12-28T02:30:22Z</time>
      </trkpt>
      <trkpt lat="36.230370" lon="-116.766780">
        <ele>-80.614</ele>
        <time>2018-12-28T02:30:42Z</time>
      </trkpt>
      <trkpt lat="36.230380" lon="-116.766760">
        <ele>-80.508</ele>
        <time>2018-12-28T02:31:02Z</time>
      </trkpt>
      <trkpt lat="36.230380" lon="-116.766730">
        <ele>-80.165</ele>
        <time>2018-12-28T02:31:22Z</time>
      </trkpt>
      <trkpt lat="36.230380" lon="-116.766710">
        <ele>-79.943</ele>
        <time>2018-12-28T02:31:42Z</time>
      </trkpt>
      <trkpt lat="36.230390" lon="-116.766690">
        <ele>-79.788</ele>
        <time>2018-12-28T02:32:02Z</time>
      </trkpt>
      <trkpt lat="36.230390" lon="-116.766660">
        <ele>-79.489</ele>
        <time>2018-12-28T02:32:22Z</time>
      </trkpt>
      <trkpt lat="36.230380" lon="-116.766640">
        <ele>-79.173</ele>
        <time>2018-12-28T02:32:42Z</time>
      </trkpt>
      <trkpt lat="36.230370" lon="-116.766610">
        <ele>-78.692</ele>
        <time>2018-12-28T02:33:02Z</time>
      </trkpt>
      <trkpt lat="36.230330" lon="-116.766530">
        <ele>-77.331</ele>
        <time>2018-12-28T02:33:22Z</time>
      </trkpt>
      <trkpt lat="36.230326" lon="-116.766530">
        <ele>-77.381</ele>
        <time>2018-12-28T02:33:42Z</time>
      </trkpt>
      <trkpt lat="36.230440" lon="-116.766430">
        <ele>-77.081</ele>
        <time>2018-12-28T02:34:02Z</time>
      </trkpt>
      <trkpt lat="36.230760" lon="-116.766210">
        <ele>-77.661</ele>
        <time>2018-12-28T02:34:22Z</time>
      </trkpt>
      <trkpt lat="36.230870" lon="-116.766140">
        <ele>-76.317</ele>
        <time>2018-12-28T02:34:42Z</time>
      </trkpt>
      <trkpt lat="36.230980" lon="-116.766090">
        <ele>-75.908</ele>
        <time>2018-12-28T02:35:02Z</time>
      </trkpt>
      <trkpt lat="36.231100" lon="-116.766040">
        <ele>-75.681</ele>
        <time>2018-12-28T02:35:22Z</time>
      </trkpt>
      <trkpt lat="36.231210" lon="-116.766000">
        <ele>-75.469</ele>
        <time>2018-12-28T02:35:42Z</time>
      </trkpt>
      <trkpt lat="36.231330" lon="-116.765970">
        <ele>-75.344</ele>
        <time>2018-12-28T02:36:02Z</time>
      </trkpt>
      <trkpt lat="36.231430" lon="-116.765950">
        <ele>-75.265</ele>
        <time>2018-12-28T02:36:22Z</time>
      </trkpt>
      <trkpt lat="36.231560" lon="-116.765940">
        <ele>-75.399</ele>
        <time>2018-12-28T02:36:42Z</time>
      </trkpt>
      <trkpt lat="36.231710" lon="-116.765930">
        <ele>-75.498</ele>
        <time>2018-12-28T02:37:02Z</time>
      </trkpt>
      <trkpt lat="36.231790" lon="-116.765930">
        <ele>-75.517</ele>
        <time>2018-12-28T02:37:22Z</time>
      </trkpt>
      <trkpt lat="36.231880" lon="-116.765940">
        <ele>-75.657</ele>
        <time>2018-12-28T02:37:42Z</time>
      </trkpt>
      <trkpt lat="36.232000" lon="-116.765950">
        <ele>-75.724</ele>
        <time>2018-12-28T02:38:02Z</time>
      </trkpt>
      <trkpt lat="36.232110" lon="-116.765970">
        <ele>-75.904</ele>
        <time>2018-12-28T02:38:22Z</time>
      </trkpt>
      <trkpt lat="36.232220" lon="-116.766000">
        <ele>-75.914</ele>
        <time>2018-12-28T02:38:42Z</time>
      </trkpt>
      <trkpt lat="36.232300" lon="-116.766020">
        <ele>-75.908</ele>
        <time>2018-12-28T02:39:02Z</time>
      </trkpt>
      <trkpt lat="36.232380" lon="-116.766050">
        <ele>-75.975</ele>
        <time>2018-12-28T02:39:22Z</time>
      </trkpt>
      <trkpt lat="36.232480" lon="-116.766090">
        <ele>-75.883</ele>
        <time>2018-12-28T02:39:42Z</time>
      </trkpt>
      <trkpt lat="36.232640" lon="-116.766160">
        <ele>-75.828</ele>
        <time>2018-12-28T02:40:02Z</time>
      </trkpt>
      <trkpt lat="36.232760" lon="-116.766230">
        <ele>-76.089</ele>
        <time>2018-12-28T02:40:22Z</time>
      </trkpt>
      <trkpt lat="36.232920" lon="-116.766340">
        <ele>-76.143</ele>
        <time>2018-12-28T02:40:42Z</time>
      </trkpt>
      <trkpt lat="36.233060" lon="-116.766440">
        <ele>-75.952</ele>
        <time>2018-12-28T02:41:02Z</time>
      </trkpt>
      <trkpt lat="36.233270" lon="-116.766580">
        <ele>-76.031</ele>
        <time>2018-12-28T02:41:22Z</time>
      </trkpt>
      <trkpt lat="36.233540" lon="-116.766760">
        <ele>-76.221</ele>
        <time>2018-12-28T02:41:42Z</time>
      </trkpt>
      <trkpt lat="36.233760" lon="-116.766920">
        <ele>-76.493</ele>
        <time>2018-12-28T02:42:02Z</time>
      </trkpt>
      <trkpt lat="36.233850" lon="-116.766980">
        <ele>-76.565</ele>
        <time>2018-12-28T02:42:22Z</time>
      </trkpt>
      <trkpt lat="36.234020" lon="-116.767090">
        <ele>-76.921</ele>
        <time>2018-12-28T02:42:42Z</time>
      </trkpt>
      <trkpt lat="36.234240" lon="-116.767250">
        <ele>-77.208</ele>
        <time>2018-12-28T02:43:02Z</time>
      </trkpt>
      <trkpt lat="36.234430" lon="-116.767380">
        <ele>-77.432</ele>
        <time>2018-12-28T02:43:22Z</time>
      </trkpt>
      <trkpt lat="36.234620" lon="-116.767520">
        <ele>-77.530</ele>
        <time>2018-12-28T02:43:42Z</time>
      </trkpt>
      <trkpt lat="36.234710" lon="-116.767580">
        <ele>-77.665</ele>
        <time>2018-12-28T02:44:02Z</time>
      </trkpt>
      <trkpt lat="36.235000" lon="-116.767790">
        <ele>-78.056</ele>
        <time>2018-12-28T02:44:22Z</time>
      </trkpt>
      <trkpt lat="36.235380" lon="-116.768050">
        <ele>-79.190</ele>
        <time>2018-12-28T02:44:42Z</time>
      </trkpt>
      <trkpt lat="36.235660" lon="-116.768240">
        <ele>-78.929</ele>
        <time>2018-12-28T02:45:02Z</time>
      </trkpt>
      <trkpt lat="36.235970" lon="-116.768450">
        <ele>-77.788</ele>
        <time>2018-12-28T02:45:22Z</time>
      </trkpt>
      <trkpt lat="36.236260" lon="-116.768650">
        <ele>-77.568</ele>
        <time>2018-12-28T02:45:42Z</time>
      </trkpt>
      <trkpt lat="36.236520" lon="-116.768840">
        <ele>-77.281</ele>
        <time>2018-12-28T02:46:02Z</time>
      </trkpt>
      <trkpt lat="36.236820" lon="-116.769040">
        <ele>-76.461</ele>
        <time>2018-12-28T02:46:22Z</time>
      </trkpt>
      <trkpt lat="36.237120" lon="-116.769260">
        <ele>-76.117</ele>
        <time>2018-12-28T02:46:42Z</time>
      </trkpt>
      <trkpt lat="36.237390" lon="-116.769440">
        <ele>-76.008</ele>
        <time>2018-12-28T02:47:02Z</time>
      </trkpt>
      <trkpt lat="36.237700" lon="-116.769660">
        <ele>-75.841</ele>
        <time>2018-12-28T02:47:22Z</time>
      </trkpt>
      <trkpt lat="36.238090" lon="-116.769930">
        <ele>-75.849</ele>
        <time>2018-12-28T02:47:42Z</time>
      </trkpt>
      <trkpt lat="36.238350" lon="-116.770110">
        <ele>-75.834</ele>
        <time>2018-12-28T02:48:02Z</time>
      </trkpt>
      <trkpt lat="36.238540" lon="-116.770250">
        <ele>-75.975</ele>
        <time>2018-12-28T02:48:22Z</time>
      </trkpt>
      <trkpt lat="36.238660" lon="-116.770330">
        <ele>-76.099</ele>
        <time>2018-12-28T02:48:42Z</time>
      </trkpt>
      <trkpt lat="36.238850" lon="-116.770470">
        <ele>-76.128</ele>
        <time>2018-12-28T02:49:02Z</time>
      </trkpt>
      <trkpt lat="36.239110" lon="-116.770650">
        <ele>-76.127</ele>
        <time>2018-12-28T02:49:22Z</time>
      </trkpt>
      <trkpt lat="36.239320" lon="-116.770790">
        <ele>-76.137</ele>
        <time>2018-12-28T02:49:42Z</time>
      </trkpt>
      <trkpt lat="36.239640" lon="-116.771000">
        <ele>-76.259</ele>
        <time>2018-12-28T02:50:02Z</time>
      </trkpt>
      <trkpt lat="36.239730" lon="-116.771060">
        <ele>-76.203</ele>
        <time>2018-12-28T02:50:22Z</time>
      </trkpt>
      <trkpt lat="36.239910" lon="-116.771160">
        <ele>-76.223</ele>
        <time>2018-12-28T02:50:42Z</time>
      </trkpt>
      <trkpt lat="36.240040" lon="-116.771230">
        <ele>-76.208</ele>
        <time>2018-12-28T02:51:02Z</time>
      </trkpt>
      <trkpt lat="36.240140" lon="-116.771280">
        <ele>-76.348</ele>
        <time>2018-12-28T02:51:22Z</time>
      </trkpt>
      <trkpt lat="36.240260" lon="-116.771350">
        <ele>-76.356</ele>
        <time>2018-12-28T02:51:42Z</time>
      </trkpt>
      <trkpt lat="36.240390" lon="-116.771410">
        <ele>-76.321</ele>
        <time>2018-12-28T02:52:02Z</time>
      </trkpt>
      <trkpt lat="36.240660" lon="-116.771520">
        <ele>-76.472</ele>
        <time>2018-12-28T02:52:22Z</time>
      </trkpt>
      <trkpt lat="36.240840" lon="-116.771590">
        <ele>-76.686</ele>
        <time>2018-12-28T02:52:42Z</time>
      </trkpt>
      <trkpt lat="36.241040" lon="-116.771670">
        <ele>-76.745</ele>
        <time>2018-12-28T02:53:02Z</time>
      </trkpt>
      <trkpt lat="36.241310" lon="-116.771750">
        <ele>-76.654</ele>
        <time>2018-12-28T02:53:22Z</time>
      </trkpt>
      <trkpt lat="36.241590" lon="-116.771830">
        <ele>-76.594</ele>
        <time>2018-12-28T02:53:42Z</time>
      </trkpt>
      <trkpt lat="36.241860" lon="-116.771890">
        <ele>-76.512</ele>
        <time>2018-12-28T02:54:02Z</time>
      </trkpt>
      <trkpt lat="36.242100" lon="-116.771930">
        <ele>-76.432</ele>
        <time>2018-12-28T02:54:22Z</time>
      </trkpt>
      <trkpt lat="36.242410" lon="-116.772000">
        <ele>-76.405</ele>
        <time>2018-12-28T02:54:42Z</time>
      </trkpt>
      <trkpt lat="36.242730" lon="-116.772060">
        <ele>-76.508</ele>
        <time>2018-12-28T02:55:02Z</time>
      </trkpt>
      <trkpt lat="36.243060" lon="-116.772120">
        <ele>-76.714</ele>
        <time>2018-12-28T02:55:22Z</time>
      </trkpt>
      <trkpt lat="36.243390" lon="-116.772180">
        <ele>-77.162</ele>
        <time>2018-12-28T02:55:42Z</time>
      </trkpt>
      <trkpt lat="36.243720" lon="-116.772250">
        <ele>-76.817</ele>
        <time>2018-12-28T02:56:02Z</time>
      </trkpt>
      <trkpt lat="36.244070" lon="-116.772310">
        <ele>-76.388</ele>
        <time>2018-12-28T02:56:22Z</time>
      </trkpt>
      <trkpt lat="36.244490" lon="-116.772390">
        <ele>-76.482</ele>
        <time>2018-12-28T02:56:42Z</time>
      </trkpt>
      <trkpt lat="36.244810" lon="-116.772450">
        <ele>-76.491</ele>
        <time>2018-12-28T02:57:02Z</time>
      </trkpt>
      <trkpt lat="36.245030" lon="-116.772500">
        <ele>-76.490</ele>
        <time>2018-12-28T02:57:22Z</time>
      </trkpt>
      <trkpt lat="36.245280" lon="-116.772540">
        <ele>-76.210</ele>
        <time>2018-12-28T02:57:42Z</time>
      </trkpt>
      <trkpt lat="36.245580" lon="-116.772600">
        <ele>-76.443</ele>
        <time>2018-12-28T02:58:02Z</time>
      </trkpt>
      <trkpt lat="36.245900" lon="-116.772660">
        <ele>-76.864</ele>
        <time>2018-12-28T02:58:22Z</time>
      </trkpt>
      <trkpt lat="36.246190" lon="-116.772720">
        <ele>-77.110</ele>
        <time>2018-12-28T02:58:42Z</time>
      </trkpt>
      <trkpt lat="36.246500" lon="-116.772770">
        <ele>-76.508</ele>
        <time>2018-12-28T02:59:02Z</time>
      </trkpt>
      <trkpt lat="36.246820" lon="-116.772840">
        <ele>-76.317</ele>
        <time>2018-12-28T02:59:22Z</time>
      </trkpt>
      <trkpt lat="36.247180" lon="-116.772910">
        <ele>-76.055</ele>
        <time>2018-12-28T02:59:42Z</time>
      </trkpt>
      <trkpt lat="36.247450" lon="-116.772960">
        <ele>-75.840</ele>
        <time>2018-12-28T03:00:02Z</time>
      </trkpt>
      <trkpt lat="36.247700" lon="-116.773020">
        <ele>-75.961</ele>
        <time>2018-12-28T03:00:22Z</time>
      </trkpt>
      <trkpt lat="36.248040" lon="-116.773080">
        <ele>-76.035</ele>
        <time>2018-12-28T03:00:42Z</time>
      </trkpt>
      <trkpt lat="36.248400" lon="-116.773150">
        <ele>-76.134</ele>
        <time>2018-12-28T03:01:02Z</time>
      </trkpt>
      <trkpt lat="36.248820" lon="-116.773240">
        <ele>-76.143</ele>
        <time>2018-12-28T03:01:22Z</time>
      </trkpt>
      <trkpt lat="36.249260" lon="-116.773320">
        <ele>-75.233</ele>
        <time>2018-12-28T03:01:42Z</time>
      </trkpt>
      <trkpt lat="36.249700" lon="-116.773400">
        <ele>-75.421</ele>
        <time>2018-12-28T03:02:02Z</time>
      </trkpt>
      <trkpt lat="36.250050" lon="-116.773460">
        <ele>-76.041</ele>
        <time>2018-12-28T03:02:22Z</time>
      </trkpt>
      <trkpt lat="36.250380" lon="-116.773530">
        <ele>-76.705</ele>
        <time>2018-12-28T03:02:42Z</time>
      </trkpt>
      <trkpt lat="36.250710" lon="-116.773590">
        <ele>-79.008</ele>
        <time>2018-12-28T03:03:02Z</time>
      </trkpt>
      <trkpt lat="36.251030" lon="-116.773650">
        <ele>-78.755</ele>
        <time>2018-12-28T03:03:22Z</time>
      </trkpt>
      <trkpt lat="36.251350" lon="-116.773710">
        <ele>-79.213</ele>
        <time>2018-12-28T03:03:42Z</time>
      </trkpt>
      <trkpt lat="36.251570" lon="-116.773760">
        <ele>-80.058</ele>
        <time>2018-12-28T03:04:02Z</time>
      </trkpt>
      <trkpt lat="36.251790" lon="-116.773810">
        <ele>-80.179</ele>
        <time>2018-12-28T03:04:22Z</time>
      </trkpt>
      <trkpt lat="36.252000" lon="-116.773860">
        <ele>-79.493</ele>
        <time>2018-12-28T03:04:42Z</time>
      </trkpt>
      <trkpt lat="36.252220" lon="-116.773920">
        <ele>-79.612</ele>
        <time>2018-12-28T03:05:02Z</time>
      </trkpt>
      <trkpt lat="36.252330" lon="-116.773950">
        <ele>-80.041</ele>
        <time>2018-12-28T03:05:22Z</time>
      </trkpt>
      <trkpt lat="36.252540" lon="-116.774010">
        <ele>-80.921</ele>
        <time>2018-12-28T03:05:42Z</time>
      </trkpt>
      <trkpt lat="36.252740" lon="-116.774070">
        <ele>-81.668</ele>
        <time>2018-12-28T03:06:02Z</time>
      </trkpt>
      <trkpt lat="36.252940" lon="-116.774150">
        <ele>-82.142</ele>
        <time>2018-12-28T03:06:22Z</time>
      </trkpt>
      <trkpt lat="36.253160" lon="-116.774230">
        <ele>-82.026</ele>
        <time>2018-12-28T03:06:42Z</time>
      </trkpt>
      <trkpt lat="36.253360" lon="-116.774310">
        <ele>-82.008</ele>
        <time>2018-12-28T03:07:02Z</time>
      </trkpt>
      <trkpt lat="36.253590" lon="-116.774410">
        <ele>-81.839</ele>
        <time>2018-12-28T03:07:22Z</time>
      </trkpt>
      <trkpt lat="36.253700" lon="-116.774460">
        <ele>-81.787</ele>
        <time>2018-12-28T03:07:42Z</time>
      </trkpt>
      <trkpt lat="36.253800" lon="-116.774510">
        <ele>-81.442</ele>
        <time>2018-12-28T03:08:02Z</time>
      </trkpt>
      <trkpt lat="36.253990" lon="-116.774610">
        <ele>-80.683</ele>
        <time>2018-12-28T03:08:22Z</time>
      </trkpt>
      <trkpt lat="36.254130" lon="-116.774680">
        <ele>-80.117</ele>
        <time>2018-12-28T03:08:42Z</time>
      </trkpt>
      <trkpt lat="36.254290" lon="-116.774770">
        <ele>-79.726</ele>
        <time>2018-12-28T03:09:02Z</time>
      </trkpt>
      <trkpt lat="36.254460" lon="-116.774870">
        <ele>-79.935</ele>
        <time>2018-12-28T03:09:22Z</time>
      </trkpt>
      <trkpt lat="36.254590" lon="-116.774950">
        <ele>-80.135</ele>
        <time>2018-12-28T03:09:42Z</time>
      </trkpt>
      <trkpt lat="36.254790" lon="-116.775070">
        <ele>-80.422</ele>
        <time>2018-12-28T03:10:02Z</time>
      </trkpt>
      <trkpt lat="36.254980" lon="-116.775200">
        <ele>-80.662</ele>
        <time>2018-12-28T03:10:22Z</time>
      </trkpt>
      <trkpt lat="36.255110" lon="-116.775290">
        <ele>-80.708</ele>
        <time>2018-12-28T03:10:42Z</time>
      </trkpt>
      <trkpt lat="36.255300" lon="-116.775420">
        <ele>-80.308</ele>
        <time>2018-12-28T03:11:02Z</time>
      </trkpt>
      <trkpt lat="36.255530" lon="-116.775590">
        <ele>-78.845</ele>
        <time>2018-12-28T03:11:22Z</time>
      </trkpt>
      <trkpt lat="36.255800" lon="-116.775800">
        <ele>-76.873</ele>
        <time>2018-12-28T03:11:42Z</time>
      </trkpt>
      <trkpt lat="36.256060" lon="-116.776000">
        <ele>-74.118</ele>
        <time>2018-12-28T03:12:02Z</time>
      </trkpt>
      <trkpt lat="36.256330" lon="-116.776200">
        <ele>-71.029</ele>
        <time>2018-12-28T03:12:22Z</time>
      </trkpt>
      <trkpt lat="36.256610" lon="-116.776420">
        <ele>-69.843</ele>
        <time>2018-12-28T03:12:42Z</time>
      </trkpt>
      <trkpt lat="36.256850" lon="-116.776610">
        <ele>-68.742</ele>
        <time>2018-12-28T03:13:02Z</time>
      </trkpt>
      <trkpt lat="36.257170" lon="-116.776860">
        <ele>-65.891</ele>
        <time>2018-12-28T03:13:22Z</time>
      </trkpt>
      <trkpt lat="36.258270" lon="-116.777700">
        <ele>-58.791</ele>
        <time>2018-12-28T03:13:42Z</time>
      </trkpt>
      <trkpt lat="36.260250" lon="-116.779250">
        <ele>-67.094</ele>
        <time>2018-12-28T03:14:02Z</time>
      </trkpt>
      <trkpt lat="36.261380" lon="-116.780120">
        <ele>-70.657</ele>
        <time>2018-12-28T03:14:22Z</time>
      </trkpt>
      <trkpt lat="36.262030" lon="-116.780630">
        <ele>-72.322</ele>
        <time>2018-12-28T03:14:42Z</time>
      </trkpt>
      <trkpt lat="36.262970" lon="-116.781360">
        <ele>-73.908</ele>
        <time>2018-12-28T03:15:02Z</time>
      </trkpt>
      <trkpt lat="36.264730" lon="-116.782730">
        <ele>-77.222</ele>
        <time>2018-12-28T03:15:22Z</time>
      </trkpt>
      <trkpt lat="36.266230" lon="-116.783890">
        <ele>-79.280</ele>
        <time>2018-12-28T03:15:42Z</time>
      </trkpt>
      <trkpt lat="36.268380" lon="-116.785560">
        <ele>-79.355</ele>
        <time>2018-12-28T03:16:02Z</time>
      </trkpt>
      <trkpt lat="36.268860" lon="-116.785950">
        <ele>-79.496</ele>
        <time>2018-12-28T03:16:22Z</time>
      </trkpt>
      <trkpt lat="36.269110" lon="-116.786160">
        <ele>-79.510</ele>
        <time>2018-12-28T03:16:42Z</time>
      </trkpt>
      <trkpt lat="36.269460" lon="-116.786470">
        <ele>-79.529</ele>
        <time>2018-12-28T03:17:02Z</time>
      </trkpt>
      <trkpt lat="36.269910" lon="-116.786890">
        <ele>-79.698</ele>
        <time>2018-12-28T03:17:22Z</time>
      </trkpt>
      <trkpt lat="36.270250" lon="-116.787240">
        <ele>-79.778</ele>
        <time>2018-12-28T03:17:42Z</time>
      </trkpt>
      <trkpt lat="36.270690" lon="-116.787700">
        <ele>-80.316</ele>
        <time>2018-12-28T03:18:02Z</time>
      </trkpt>
      <trkpt lat="36.271150" lon="-116.788250">
        <ele>-80.976</ele>
        <time>2018-12-28T03:18:22Z</time>
      </trkpt>
      <trkpt lat="36.271540" lon="-116.788750">
        <ele>-80.713</ele>
        <time>2018-12-28T03:18:42Z</time>
      </trkpt>
      <trkpt lat="36.271900" lon="-116.789230">
        <ele>-80.308</ele>
        <time>2018-12-28T03:19:02Z</time>
      </trkpt>
      <trkpt lat="36.272150" lon="-116.789590">
        <ele>-79.484</ele>
        <time>2018-12-28T03:19:22Z</time>
      </trkpt>
      <trkpt lat="36.272460" lon="-116.790040">
        <ele>-78.772</ele>
        <time>2018-12-28T03:19:42Z</time>
      </trkpt>
      <trkpt lat="36.272680" lon="-116.790410">
        <ele>-77.537</ele>
        <time>2018-12-28T03:20:02Z</time>
      </trkpt>
      <trkpt lat="36.272800" lon="-116.790610">
        <ele>-77.378</ele>
        <time>2018-12-28T03:20:22Z</time>
      </trkpt>
      <trkpt lat="36.273250" lon="-116.791400">
        <ele>-75.532</ele>
        <time>2018-12-28T03:20:42Z</time>
      </trkpt>
      <trkpt lat="36.274050" lon="-116.792860">
        <ele>-70.871</ele>
        <time>2018-12-28T03:21:02Z</time>
      </trkpt>
      <trkpt lat="36.275410" lon="-116.795360">
        <ele>-64.580</ele>
        <time>2018-12-28T03:21:22Z</time>
      </trkpt>
      <trkpt lat="36.276160" lon="-116.796730">
        <ele>-61.740</ele>
        <time>2018-12-28T03:21:42Z</time>
      </trkpt>
      <trkpt lat="36.276440" lon="-116.797250">
        <ele>-61.352</ele>
        <time>2018-12-28T03:22:02Z</time>
      </trkpt>
      <trkpt lat="36.276750" lon="-116.797790">
        <ele>-58.953</ele>
        <time>2018-12-28T03:22:22Z</time>
      </trkpt>
      <trkpt lat="36.277060" lon="-116.798270">
        <ele>-58.708</ele>
        <time>2018-12-28T03:22:42Z</time>
      </trkpt>
      <trkpt lat="36.277410" lon="-116.798750">
        <ele>-59.608</ele>
        <time>2018-12-28T03:23:02Z</time>
      </trkpt>
      <trkpt lat="36.277610" lon="-116.798990">
        <ele>-60.988</ele>
        <time>2018-12-28T03:23:22Z</time>
      </trkpt>
      <trkpt lat="36.277960" lon="-116.799380">
        <ele>-61.726</ele>
        <time>2018-12-28T03:23:42Z</time>
      </trkpt>
      <trkpt lat="36.278390" lon="-116.799800">
        <ele>-61.651</ele>
        <time>2018-12-28T03:24:02Z</time>
      </trkpt>
      <trkpt lat="36.278750" lon="-116.800100">
        <ele>-61.832</ele>
        <time>2018-12-28T03:24:22Z</time>
      </trkpt>
      <trkpt lat="36.279260" lon="-116.800490">
        <ele>-62.746</ele>
        <time>2018-12-28T03:24:42Z</time>
      </trkpt>
      <trkpt lat="36.279620" lon="-116.800710">
        <ele>-63.055</ele>
        <time>2018-12-28T03:25:02Z</time>
      </trkpt>
      <trkpt lat="36.280380" lon="-116.801160">
        <ele>-63.814</ele>
        <time>2018-12-28T03:25:22Z</time>
      </trkpt>
      <trkpt lat="36.288370" lon="-116.805810">
        <ele>-74.784</ele>
        <time>2018-12-28T03:25:42Z</time>
      </trkpt>
      <trkpt lat="36.289800" lon="-116.806640">
        <ele>-73.463</ele>
        <time>2018-12-28T03:26:02Z</time>
      </trkpt>
      <trkpt lat="36.293590" lon="-116.808840">
        <ele>-66.244</ele>
        <time>2018-12-28T03:26:22Z</time>
      </trkpt>
      <trkpt lat="36.295760" lon="-116.810110">
        <ele>-62.318</ele>
        <time>2018-12-28T03:26:42Z</time>
      </trkpt>
      <trkpt lat="36.297280" lon="-116.811000">
        <ele>-61.408</ele>
        <time>2018-12-28T03:27:02Z</time>
      </trkpt>
      <trkpt lat="36.298630" lon="-116.811780">
        <ele>-59.489</ele>
        <time>2018-12-28T03:27:22Z</time>
      </trkpt>
      <trkpt lat="36.299930" lon="-116.812530">
        <ele>-59.187</ele>
        <time>2018-12-28T03:27:42Z</time>
      </trkpt>
      <trkpt lat="36.300330" lon="-116.812760">
        <ele>-59.272</ele>
        <time>2018-12-28T03:28:02Z</time>
      </trkpt>
      <trkpt lat="36.300700" lon="-116.812970">
        <ele>-59.213</ele>
        <time>2018-12-28T03:28:22Z</time>
      </trkpt>
      <trkpt lat="36.301250" lon="-116.813290">
        <ele>-59.087</ele>
        <time>2018-12-28T03:28:42Z</time>
      </trkpt>
      <trkpt lat="36.301590" lon="-116.813490">
        <ele>-59.366</ele>
        <time>2018-12-28T03:29:02Z</time>
      </trkpt>
      <trkpt lat="36.302540" lon="-116.814040">
        <ele>-59.745</ele>
        <time>2018-12-28T03:29:22Z</time>
      </trkpt>
      <trkpt lat="36.303360" lon="-116.814520">
        <ele>-59.775</ele>
        <time>2018-12-28T03:29:42Z</time>
      </trkpt>
      <trkpt lat="36.304480" lon="-116.815170">
        <ele>-59.643</ele>
        <time>2018-12-28T03:30:02Z</time>
      </trkpt>
      <trkpt lat="36.305290" lon="-116.815640">
        <ele>-58.564</ele>
        <time>2018-12-28T03:30:22Z</time>
      </trkpt>
      <trkpt lat="36.305990" lon="-116.816050">
        <ele>-57.210</ele>
        <time>2018-12-28T03:30:42Z</time>
      </trkpt>
      <trkpt lat="36.306500" lon="-116.816350">
        <ele>-56.408</ele>
        <time>2018-12-28T03:31:02Z</time>
      </trkpt>
      <trkpt lat="36.306990" lon="-116.816630">
        <ele>-55.667</ele>
        <time>2018-12-28T03:31:22Z</time>
      </trkpt>
      <trkpt lat="36.307580" lon="-116.816980">
        <ele>-54.525</ele>
        <time>2018-12-28T03:31:42Z</time>
      </trkpt>
      <trkpt lat="36.307900" lon="-116.817160">
        <ele>-54.010</ele>
        <time>2018-12-28T03:32:02Z</time>
      </trkpt>
      <trkpt lat="36.308400" lon="-116.817460">
        <ele>-53.341</ele>
        <time>2018-12-28T03:32:22Z</time>
      </trkpt>
      <trkpt lat="36.308900" lon="-116.817740">
        <ele>-52.755</ele>
        <time>2018-12-28T03:32:42Z</time>
      </trkpt>
      <trkpt lat="36.309320" lon="-116.817990">
        <ele>-52.394</ele>
        <time>2018-12-28T03:33:02Z</time>
      </trkpt>
      <trkpt lat="36.310090" lon="-116.818430">
        <ele>-51.543</ele>
        <time>2018-12-28T03:33:22Z</time>
      </trkpt>
      <trkpt lat="36.311070" lon="-116.819010">
        <ele>-50.833</ele>
        <time>2018-12-28T03:33:42Z</time>
      </trkpt>
      <trkpt lat="36.312890" lon="-116.820060">
        <ele>-49.296</ele>
        <time>2018-12-28T03:34:02Z</time>
      </trkpt>
      <trkpt lat="36.313600" lon="-116.820470">
        <ele>-46.931</ele>
        <time>2018-12-28T03:34:22Z</time>
      </trkpt>
      <trkpt lat="36.313760" lon="-116.820560">
        <ele>-46.924</ele>
        <time>2018-12-28T03:34:42Z</time>
      </trkpt>
      <trkpt lat="36.314380" lon="-116.820920">
        <ele>-46.208</ele>
        <time>2018-12-28T03:35:02Z</time>
      </trkpt>
      <trkpt lat="36.315190" lon="-116.821390">
        <ele>-46.042</ele>
        <time>2018-12-28T03:35:22Z</time>
      </trkpt>
      <trkpt lat="36.315710" lon="-116.821690">
        <ele>-46.630</ele>
        <time>2018-12-28T03:35:42Z</time>
      </trkpt>
      <trkpt lat="36.316190" lon="-116.821970">
        <ele>-46.615</ele>
        <time>2018-12-28T03:36:02Z</time>
      </trkpt>
      <trkpt lat="36.316900" lon="-116.822380">
        <ele>-46.896</ele>
        <time>2018-12-28T03:36:22Z</time>
      </trkpt>
      <trkpt lat="36.317890" lon="-116.822950">
        <ele>-48.540</ele>
        <time>2018-12-28T03:36:42Z</time>
      </trkpt>
      <trkpt lat="36.318480" lon="-116.823300">
        <ele>-49.359</ele>
        <time>2018-12-28T03:37:02Z</time>
      </trkpt>
      <trkpt lat="36.319280" lon="-116.823760">
        <ele>-50.518</ele>
        <time>2018-12-28T03:37:22Z</time>
      </trkpt>
      <trkpt lat="36.319890" lon="-116.824110">
        <ele>-51.078</ele>
        <time>2018-12-28T03:37:42Z</time>
      </trkpt>
      <trkpt lat="36.321070" lon="-116.824800">
        <ele>-52.694</ele>
        <time>2018-12-28T03:38:02Z</time>
      </trkpt>
      <trkpt lat="36.321580" lon="-116.825100">
        <ele>-53.157</ele>
        <time>2018-12-28T03:38:22Z</time>
      </trkpt>
      <trkpt lat="36.322670" lon="-116.825740">
        <ele>-53.522</ele>
        <time>2018-12-28T03:38:42Z</time>
      </trkpt>
      <trkpt lat="36.323680" lon="-116.826320">
        <ele>-52.708</ele>
        <time>2018-12-28T03:39:02Z</time>
      </trkpt>
      <trkpt lat="36.324080" lon="-116.826560">
        <ele>-52.152</ele>
        <time>2018-12-28T03:39:22Z</time>
      </trkpt>
      <trkpt lat="36.324870" lon="-116.827020">
        <ele>-50.760</ele>
        <time>2018-12-28T03:39:42Z</time>
      </trkpt>
      <trkpt lat="36.325380" lon="-116.827310">
        <ele>-50.475</ele>
        <time>2018-12-28T03:40:02Z</time>
      </trkpt>
      <trkpt lat="36.326780" lon="-116.828140">
        <ele>-48.996</ele>
        <time>2018-12-28T03:40:22Z</time>
      </trkpt>
      <trkpt lat="36.327280" lon="-116.828430">
        <ele>-48.610</ele>
        <time>2018-12-28T03:40:42Z</time>
      </trkpt>
      <trkpt lat="36.327730" lon="-116.828690">
        <ele>-47.099</ele>
        <time>2018-12-28T03:41:02Z</time>
      </trkpt>
      <trkpt lat="36.328110" lon="-116.828910">
        <ele>-46.088</ele>
        <time>2018-12-28T03:41:22Z</time>
      </trkpt>
      <trkpt lat="36.328560" lon="-116.829170">
        <ele>-44.688</ele>
        <time>2018-12-28T03:41:42Z</time>
      </trkpt>
      <trkpt lat="36.329040" lon="-116.829450">
        <ele>-43.175</ele>
        <time>2018-12-28T03:42:02Z</time>
      </trkpt>
      <trkpt lat="36.329620" lon="-116.829790">
        <ele>-42.128</ele>
        <time>2018-12-28T03:42:22Z</time>
      </trkpt>
      <trkpt lat="36.329940" lon="-116.829980">
        <ele>-41.720</ele>
        <time>2018-12-28T03:42:42Z</time>
      </trkpt>
      <trkpt lat="36.330010" lon="-116.830020">
        <ele>-41.708</ele>
        <time>2018-12-28T03:43:02Z</time>
      </trkpt>
      <trkpt lat="36.330220" lon="-116.830140">
        <ele>-41.420</ele>
        <time>2018-12-28T03:43:22Z</time>
      </trkpt>
      <trkpt lat="36.330670" lon="-116.830400">
        <ele>-39.698</ele>
        <time>2018-12-28T03:43:42Z</time>
      </trkpt>
      <trkpt lat="36.331110" lon="-116.830640">
        <ele>-37.243</ele>
        <time>2018-12-28T03:44:02Z</time>
      </trkpt>
      <trkpt lat="36.331470" lon="-116.830850">
        <ele>-37.734</ele>
        <time>2018-12-28T03:44:22Z</time>
      </trkpt>
      <trkpt lat="36.331870" lon="-116.831080">
        <ele>-36.698</ele>
        <time>2018-12-28T03:44:42Z</time>
      </trkpt>
      <trkpt lat="36.332210" lon="-116.831270">
        <ele>-35.297</ele>
        <time>2018-12-28T03:45:02Z</time>
      </trkpt>
      <trkpt lat="36.332730" lon="-116.831540">
        <ele>-34.786</ele>
        <time>2018-12-28T03:45:22Z</time>
      </trkpt>
      <trkpt lat="36.333110" lon="-116.831730">
        <ele>-34.356</ele>
        <time>2018-12-28T03:45:42Z</time>
      </trkpt>
      <trkpt lat="36.333510" lon="-116.831920">
        <ele>-34.276</ele>
        <time>2018-12-28T03:46:02Z</time>
      </trkpt>
      <trkpt lat="36.333910" lon="-116.832110">
        <ele>-34.190</ele>
        <time>2018-12-28T03:46:22Z</time>
      </trkpt>
      <trkpt lat="36.334300" lon="-116.832290">
        <ele>-34.019</ele>
        <time>2018-12-28T03:46:42Z</time>
      </trkpt>
      <trkpt lat="36.334670" lon="-116.832440">
        <ele>-33.808</ele>
        <time>2018-12-28T03:47:02Z</time>
      </trkpt>
      <trkpt lat="36.335040" lon="-116.832590">
        <ele>-33.440</ele>
        <time>2018-12-28T03:47:22Z</time>
      </trkpt>
      <trkpt lat="36.335530" lon="-116.832790">
        <ele>-33.058</ele>
        <time>2018-12-28T03:47:42Z</time>
      </trkpt>
      <trkpt lat="36.335950" lon="-116.832960">
        <ele>-32.873</ele>
        <time>2018-12-28T03:48:02Z</time>
      </trkpt>
      <trkpt lat="36.336330" lon="-116.833100">
        <ele>-32.814</ele>
        <time>2018-12-28T03:48:22Z</time>
      </trkpt>
      <trkpt lat="36.336710" lon="-116.833250">
        <ele>-32.868</ele>
        <time>2018-12-28T03:48:42Z</time>
      </trkpt>
      <trkpt lat="36.337070" lon="-116.833400">
        <ele>-33.017</ele>
        <time>2018-12-28T03:49:02Z</time>
      </trkpt>
      <trkpt lat="36.337310" lon="-116.833500">
        <ele>-33.266</ele>
        <time>2018-12-28T03:49:22Z</time>
      </trkpt>
      <trkpt lat="36.337680" lon="-116.833640">
        <ele>-33.526</ele>
        <time>2018-12-28T03:49:42Z</time>
      </trkpt>
      <trkpt lat="36.338070" lon="-116.833790">
        <ele>-34.062</ele>
        <time>2018-12-28T03:50:02Z</time>
      </trkpt>
      <trkpt lat="36.338450" lon="-116.833950">
        <ele>-34.683</ele>
        <time>2018-12-28T03:50:22Z</time>
      </trkpt>
      <trkpt lat="36.338900" lon="-116.834130">
        <ele>-36.011</ele>
        <time>2018-12-28T03:50:42Z</time>
      </trkpt>
      <trkpt lat="36.339320" lon="-116.834290">
        <ele>-37.308</ele>
        <time>2018-12-28T03:51:02Z</time>
      </trkpt>
      <trkpt lat="36.339790" lon="-116.834480">
        <ele>-39.519</ele>
        <time>2018-12-28T03:51:22Z</time>
      </trkpt>
      <trkpt lat="36.340210" lon="-116.834650">
        <ele>-41.347</ele>
        <time>2018-12-28T03:51:42Z</time>
      </trkpt>
      <trkpt lat="36.340630" lon="-116.834820">
        <ele>-42.952</ele>
        <time>2018-12-28T03:52:02Z</time>
      </trkpt>
      <trkpt lat="36.341030" lon="-116.834980">
        <ele>-44.133</ele>
        <time>2018-12-28T03:52:22Z</time>
      </trkpt>
      <trkpt lat="36.341450" lon="-116.835140">
        <ele>-45.727</ele>
        <time>2018-12-28T03:52:42Z</time>
      </trkpt>
      <trkpt lat="36.341890" lon="-116.835330">
        <ele>-47.886</ele>
        <time>2018-12-28T03:53:02Z</time>
      </trkpt>
      <trkpt lat="36.342320" lon="-116.835500">
        <ele>-49.735</ele>
        <time>2018-12-28T03:53:22Z</time>
      </trkpt>
      <trkpt lat="36.342780" lon="-116.835680">
        <ele>-50.295</ele>
        <time>2018-12-28T03:53:42Z</time>
      </trkpt>
      <trkpt lat="36.343390" lon="-116.835930">
        <ele>-53.928</ele>
        <time>2018-12-28T03:54:02Z</time>
      </trkpt>
      <trkpt lat="36.344000" lon="-116.836170">
        <ele>-55.889</ele>
        <time>2018-12-28T03:54:22Z</time>
      </trkpt>
      <trkpt lat="36.344800" lon="-116.836480">
        <ele>-56.617</ele>
        <time>2018-12-28T03:54:42Z</time>
      </trkpt>
      <trkpt lat="36.345370" lon="-116.836700">
        <ele>-56.708</ele>
        <time>2018-12-28T03:55:02Z</time>
      </trkpt>
      <trkpt lat="36.346060" lon="-116.836970">
        <ele>-56.965</ele>
        <time>2018-12-28T03:55:22Z</time>
      </trkpt>
      <trkpt lat="36.346580" lon="-116.837180">
        <ele>-57.493</ele>
        <time>2018-12-28T03:55:42Z</time>
      </trkpt>
      <trkpt lat="36.346960" lon="-116.837330">
        <ele>-57.818</ele>
        <time>2018-12-28T03:56:02Z</time>
      </trkpt>
      <trkpt lat="36.347470" lon="-116.837530">
        <ele>-58.659</ele>
        <time>2018-12-28T03:56:22Z</time>
      </trkpt>
      <trkpt lat="36.347950" lon="-116.837720">
        <ele>-59.383</ele>
        <time>2018-12-28T03:56:42Z</time>
      </trkpt>
      <trkpt lat="36.348200" lon="-116.837820">
        <ele>-59.632</ele>
        <time>2018-12-28T03:57:02Z</time>
      </trkpt>
      <trkpt lat="36.348610" lon="-116.837990">
        <ele>-59.671</ele>
        <time>2018-12-28T03:57:22Z</time>
      </trkpt>
      <trkpt lat="36.349100" lon="-116.838180">
        <ele>-59.481</ele>
        <time>2018-12-28T03:57:42Z</time>
      </trkpt>
      <trkpt lat="36.349500" lon="-116.838340">
        <ele>-59.447</ele>
        <time>2018-12-28T03:58:02Z</time>
      </trkpt>
      <trkpt lat="36.349980" lon="-116.838530">
        <ele>-59.329</ele>
        <time>2018-12-28T03:58:22Z</time>
      </trkpt>
      <trkpt lat="36.350440" lon="-116.838720">
        <ele>-59.121</ele>
        <time>2018-12-28T03:58:42Z</time>
      </trkpt>
      <trkpt lat="36.350960" lon="-116.838930">
        <ele>-58.808</ele>
        <time>2018-12-28T03:59:02Z</time>
      </trkpt>
      <trkpt lat="36.351390" lon="-116.839120">
        <ele>-58.477</ele>
        <time>2018-12-28T03:59:22Z</time>
      </trkpt>
      <trkpt lat="36.351870" lon="-116.839300">
        <ele>-56.765</ele>
        <time>2018-12-28T03:59:42Z</time>
      </trkpt>
      <trkpt lat="36.352330" lon="-116.839490">
        <ele>-54.940</ele>
        <time>2018-12-28T04:00:02Z</time>
      </trkpt>
      <trkpt lat="36.352810" lon="-116.839670">
        <ele>-52.881</ele>
        <time>2018-12-28T04:00:22Z</time>
      </trkpt>
      <trkpt lat="36.353250" lon="-116.839850">
        <ele>-50.865</ele>
        <time>2018-12-28T04:00:42Z</time>
      </trkpt>
      <trkpt lat="36.353720" lon="-116.840030">
        <ele>-48.444</ele>
        <time>2018-12-28T04:01:02Z</time>
      </trkpt>
      <trkpt lat="36.354190" lon="-116.840220">
        <ele>-47.073</ele>
        <time>2018-12-28T04:01:22Z</time>
      </trkpt>
      <trkpt lat="36.354620" lon="-116.840390">
        <ele>-46.773</ele>
        <time>2018-12-28T04:01:42Z</time>
      </trkpt>
      <trkpt lat="36.355060" lon="-116.840570">
        <ele>-46.127</ele>
        <time>2018-12-28T04:02:02Z</time>
      </trkpt>
      <trkpt lat="36.355820" lon="-116.840880">
        <ele>-44.368</ele>
        <time>2018-12-28T04:02:22Z</time>
      </trkpt>
      <trkpt lat="36.356440" lon="-116.841120">
        <ele>-42.714</ele>
        <time>2018-12-28T04:02:42Z</time>
      </trkpt>
      <trkpt lat="36.357260" lon="-116.841450">
        <ele>-40.308</ele>
        <time>2018-12-28T04:03:02Z</time>
      </trkpt>
      <trkpt lat="36.357750" lon="-116.841640">
        <ele>-38.535</ele>
        <time>2018-12-28T04:03:22Z</time>
      </trkpt>
      <trkpt lat="36.358510" lon="-116.841950">
        <ele>-34.683</ele>
        <time>2018-12-28T04:03:42Z</time>
      </trkpt>
      <trkpt lat="36.359280" lon="-116.842260">
        <ele>-31.678</ele>
        <time>2018-12-28T04:04:02Z</time>
      </trkpt>
      <trkpt lat="36.359820" lon="-116.842480">
        <ele>-29.839</ele>
        <time>2018-12-28T04:04:22Z</time>
      </trkpt>
      <trkpt lat="36.360530" lon="-116.842760">
        <ele>-27.823</ele>
        <time>2018-12-28T04:04:42Z</time>
      </trkpt>
      <trkpt lat="36.361210" lon="-116.843030">
        <ele>-26.882</ele>
        <time>2018-12-28T04:05:02Z</time>
      </trkpt>
      <trkpt lat="36.361670" lon="-116.843200">
        <ele>-26.461</ele>
        <time>2018-12-28T04:05:22Z</time>
      </trkpt>
      <trkpt lat="36.362160" lon="-116.843400">
        <ele>-26.021</ele>
        <time>2018-12-28T04:05:42Z</time>
      </trkpt>
      <trkpt lat="36.362730" lon="-116.843620">
        <ele>-25.431</ele>
        <time>2018-12-28T04:06:02Z</time>
      </trkpt>
      <trkpt lat="36.363260" lon="-116.843840">
        <ele>-23.961</ele>
        <time>2018-12-28T04:06:22Z</time>
      </trkpt>
      <trkpt lat="36.363740" lon="-116.844030">
        <ele>-22.807</ele>
        <time>2018-12-28T04:06:42Z</time>
      </trkpt>
      <trkpt lat="36.364340" lon="-116.844270">
        <ele>-20.408</ele>
        <time>2018-12-28T04:07:02Z</time>
      </trkpt>
      <trkpt lat="36.364990" lon="-116.844540">
        <ele>-18.566</ele>
        <time>2018-12-28T04:07:22Z</time>
      </trkpt>
      <trkpt lat="36.365430" lon="-116.844720">
        <ele>-17.554</ele>
        <time>2018-12-28T04:07:42Z</time>
      </trkpt>
      <trkpt lat="36.365890" lon="-116.844900">
        <ele>-16.629</ele>
        <time>2018-12-28T04:08:02Z</time>
      </trkpt>
      <trkpt lat="36.366440" lon="-116.845120">
        <ele>-15.780</ele>
        <time>2018-12-28T04:08:22Z</time>
      </trkpt>
      <trkpt lat="36.367090" lon="-116.845390">
        <ele>-15.554</ele>
        <time>2018-12-28T04:08:42Z</time>
      </trkpt>
      <trkpt lat="36.367620" lon="-116.845590">
        <ele>-15.643</ele>
        <time>2018-12-28T04:09:02Z</time>
      </trkpt>
      <trkpt lat="36.367980" lon="-116.845740">
        <ele>-15.882</ele>
        <time>2018-12-28T04:09:22Z</time>
      </trkpt>
      <trkpt lat="36.368590" lon="-116.845980">
        <ele>-16.712</ele>
        <time>2018-12-28T04:09:42Z</time>
      </trkpt>
      <trkpt lat="36.369030" lon="-116.846150">
        <ele>-17.697</ele>
        <time>2018-12-28T04:10:02Z</time>
      </trkpt>
      <trkpt lat="36.369770" lon="-116.846450">
        <ele>-19.223</ele>
        <time>2018-12-28T04:10:22Z</time>
      </trkpt>
      <trkpt lat="36.370430" lon="-116.846710">
        <ele>-20.725</ele>
        <time>2018-12-28T04:10:42Z</time>
      </trkpt>
      <trkpt lat="36.370950" lon="-116.846910">
        <ele>-22.108</ele>
        <time>2018-12-28T04:11:02Z</time>
      </trkpt>
      <trkpt lat="36.371380" lon="-116.847080">
        <ele>-24.782</ele>
        <time>2018-12-28T04:11:22Z</time>
      </trkpt>
      <trkpt lat="36.371840" lon="-116.847250">
        <ele>-29.150</ele>
        <time>2018-12-28T04:11:42Z</time>
      </trkpt>
      <trkpt lat="36.371940" lon="-116.847290">
        <ele>-29.525</ele>
        <time>2018-12-28T04:12:02Z</time>
      </trkpt>
      <trkpt lat="36.372330" lon="-116.847440">
        <ele>-31.036</ele>
        <time>2018-12-28T04:12:22Z</time>
      </trkpt>
      <trkpt lat="36.372930" lon="-116.847680">
        <ele>-32.610</ele>
        <time>2018-12-28T04:12:42Z</time>
      </trkpt>
      <trkpt lat="36.373280" lon="-116.847820">
        <ele>-33.259</ele>
        <time>2018-12-28T04:13:02Z</time>
      </trkpt>
      <trkpt lat="36.373850" lon="-116.848050">
        <ele>-34.198</ele>
        <time>2018-12-28T04:13:22Z</time>
      </trkpt>
      <trkpt lat="36.374280" lon="-116.848230">
        <ele>-34.928</ele>
        <time>2018-12-28T04:13:42Z</time>
      </trkpt>
      <trkpt lat="36.374920" lon="-116.848480">
        <ele>-37.535</ele>
        <time>2018-12-28T04:14:02Z</time>
      </trkpt>
      <trkpt lat="36.375290" lon="-116.848630">
        <ele>-39.186</ele>
        <time>2018-12-28T04:14:22Z</time>
      </trkpt>
      <trkpt lat="36.375760" lon="-116.848810">
        <ele>-40.614</ele>
        <time>2018-12-28T04:14:42Z</time>
      </trkpt>
      <trkpt lat="36.376080" lon="-116.848930">
        <ele>-42.008</ele>
        <time>2018-12-28T04:15:02Z</time>
      </trkpt>
      <trkpt lat="36.376620" lon="-116.849140">
        <ele>-45.346</ele>
        <time>2018-12-28T04:15:22Z</time>
      </trkpt>
      <trkpt lat="36.377160" lon="-116.849350">
        <ele>-48.564</ele>
        <time>2018-12-28T04:15:42Z</time>
      </trkpt>
      <trkpt lat="36.377870" lon="-116.849630">
        <ele>-50.529</ele>
        <time>2018-12-28T04:16:02Z</time>
      </trkpt>
      <trkpt lat="36.378480" lon="-116.849880">
        <ele>-51.840</ele>
        <time>2018-12-28T04:16:22Z</time>
      </trkpt>
      <trkpt lat="36.379310" lon="-116.850210">
        <ele>-53.744</ele>
        <time>2018-12-28T04:16:42Z</time>
      </trkpt>
      <trkpt lat="36.380060" lon="-116.850510">
        <ele>-55.863</ele>
        <time>2018-12-28T04:17:02Z</time>
      </trkpt>
      <trkpt lat="36.380460" lon="-116.850670">
        <ele>-56.842</ele>
        <time>2018-12-28T04:17:22Z</time>
      </trkpt>
      <trkpt lat="36.380950" lon="-116.850860">
        <ele>-58.122</ele>
        <time>2018-12-28T04:17:42Z</time>
      </trkpt>
      <trkpt lat="36.381350" lon="-116.851030">
        <ele>-58.945</ele>
        <time>2018-12-28T04:18:02Z</time>
      </trkpt>
      <trkpt lat="36.381450" lon="-116.851070">
        <ele>-59.147</ele>
        <time>2018-12-28T04:18:22Z</time>
      </trkpt>
      <trkpt lat="36.381730" lon="-116.851180">
        <ele>-59.411</ele>
        <time>2018-12-28T04:18:42Z</time>
      </trkpt>
      <trkpt lat="36.381900" lon="-116.851250">
        <ele>-59.908</ele>
        <time>2018-12-28T04:19:02Z</time>
      </trkpt>
      <trkpt lat="36.382550" lon="-116.851500">
        <ele>-64.247</ele>
        <time>2018-12-28T04:19:22Z</time>
      </trkpt>
      <trkpt lat="36.383280" lon="-116.851780">
        <ele>-68.575</ele>
        <time>2018-12-28T04:19:42Z</time>
      </trkpt>
      <trkpt lat="36.383950" lon="-116.852040">
        <ele>-70.710</ele>
        <time>2018-12-28T04:20:02Z</time>
      </trkpt>
      <trkpt lat="36.384380" lon="-116.852220">
        <ele>-72.441</ele>
        <time>2018-12-28T04:20:22Z</time>
      </trkpt>
      <trkpt lat="36.384700" lon="-116.852350">
        <ele>-73.245</ele>
        <time>2018-12-28T04:20:42Z</time>
      </trkpt>
      <trkpt lat="36.384820" lon="-116.852390">
        <ele>-73.344</ele>
        <time>2018-12-28T04:21:02Z</time>
      </trkpt>
      <trkpt lat="36.384910" lon="-116.852410">
        <ele>-73.453</ele>
        <time>2018-12-28T04:21:22Z</time>
      </trkpt>
      <trkpt lat="36.384970" lon="-116.852430">
        <ele>-73.523</ele>
        <time>2018-12-28T04:21:42Z</time>
      </trkpt>
      <trkpt lat="36.385080" lon="-116.852450">
        <ele>-73.636</ele>
        <time>2018-12-28T04:22:02Z</time>
      </trkpt>
      <trkpt lat="36.385190" lon="-116.852460">
        <ele>-73.717</ele>
        <time>2018-12-28T04:22:22Z</time>
      </trkpt>
      <trkpt lat="36.385420" lon="-116.852470">
        <ele>-73.818</ele>
        <time>2018-12-28T04:22:42Z</time>
      </trkpt>
      <trkpt lat="36.385570" lon="-116.852460">
        <ele>-73.808</ele>
        <time>2018-12-28T04:23:02Z</time>
      </trkpt>
      <trkpt lat="36.385660" lon="-116.852450">
        <ele>-73.836</ele>
        <time>2018-12-28T04:23:22Z</time>
      </trkpt>
      <trkpt lat="36.385780" lon="-116.852430">
        <ele>-73.764</ele>
        <time>2018-12-28T04:23:42Z</time>
      </trkpt>
      <trkpt lat="36.385870" lon="-116.852410">
        <ele>-73.719</ele>
        <time>2018-12-28T04:24:02Z</time>
      </trkpt>
      <trkpt lat="36.386000" lon="-116.852360">
        <ele>-73.670</ele>
        <time>2018-12-28T04:24:22Z</time>
      </trkpt>
      <trkpt lat="36.386120" lon="-116.852320">
        <ele>-73.684</ele>
        <time>2018-12-28T04:24:42Z</time>
      </trkpt>
      <trkpt lat="36.386280" lon="-116.852240">
        <ele>-73.683</ele>
        <time>2018-12-28T04:25:02Z</time>
      </trkpt>
      <trkpt lat="36.386420" lon="-116.852170">
        <ele>-73.662</ele>
        <time>2018-12-28T04:25:22Z</time>
      </trkpt>
      <trkpt lat="36.386770" lon="-116.851970">
        <ele>-73.952</ele>
        <time>2018-12-28T04:25:42Z</time>
      </trkpt>
      <trkpt lat="36.387030" lon="-116.851820">
        <ele>-74.372</ele>
        <time>2018-12-28T04:26:02Z</time>
      </trkpt>
      <trkpt lat="36.387390" lon="-116.851600">
        <ele>-75.213</ele>
        <time>2018-12-28T04:26:22Z</time>
      </trkpt>
      <trkpt lat="36.387920" lon="-116.851290">
        <ele>-77.114</ele>
        <time>2018-12-28T04:26:42Z</time>
      </trkpt>
      <trkpt lat="36.388470" lon="-116.850980">
        <ele>-75.408</ele>
        <time>2018-12-28T04:27:02Z</time>
      </trkpt>
      <trkpt lat="36.389450" lon="-116.850420">
        <ele>-75.060</ele>
        <time>2018-12-28T04:27:22Z</time>
      </trkpt>
      <trkpt lat="36.389600" lon="-116.850330">
        <ele>-75.328</ele>
        <time>2018-12-28T04:27:42Z</time>
      </trkpt>
      <trkpt lat="36.389720" lon="-116.850250">
        <ele>-75.583</ele>
        <time>2018-12-28T04:28:02Z</time>
      </trkpt>
      <trkpt lat="36.389810" lon="-116.850190">
        <ele>-75.614</ele>
        <time>2018-12-28T04:28:22Z</time>
      </trkpt>
      <trkpt lat="36.389910" lon="-116.850110">
        <ele>-75.878</ele>
        <time>2018-12-28T04:28:42Z</time>
      </trkpt>
      <trkpt lat="36.390070" lon="-116.849970">
        <ele>-76.667</ele>
        <time>2018-12-28T04:29:02Z</time>
      </trkpt>
      <trkpt lat="36.390150" lon="-116.849890">
        <ele>-77.016</ele>
        <time>2018-12-28T04:29:22Z</time>
      </trkpt>
      <trkpt lat="36.390240" lon="-116.849820">
        <ele>-76.186</ele>
        <time>2018-12-28T04:29:42Z</time>
      </trkpt>
      <trkpt lat="36.390620" lon="-116.849450">
        <ele>-74.991</ele>
        <time>2018-12-28T04:30:02Z</time>
      </trkpt>
      <trkpt lat="36.391100" lon="-116.848990">
        <ele>-74.581</ele>
        <time>2018-12-28T04:30:22Z</time>
      </trkpt>
      <trkpt lat="36.391420" lon="-116.848690">
        <ele>-74.519</ele>
        <time>2018-12-28T04:30:42Z</time>
      </trkpt>
      <trkpt lat="36.391610" lon="-116.848500">
        <ele>-73.608</ele>
        <time>2018-12-28T04:31:02Z</time>
      </trkpt>
      <trkpt lat="36.391760" lon="-116.848370">
        <ele>-72.422</ele>
        <time>2018-12-28T04:31:22Z</time>
      </trkpt>
      <trkpt lat="36.391840" lon="-116.848310">
        <ele>-71.790</ele>
        <time>2018-12-28T04:31:42Z</time>
      </trkpt>
      <trkpt lat="36.391880" lon="-116.848290">
        <ele>-71.485</ele>
        <time>2018-12-28T04:32:02Z</time>
      </trkpt>
      <trkpt lat="36.391950" lon="-116.848250">
        <ele>-70.916</ele>
        <time>2018-12-28T04:32:22Z</time>
      </trkpt>
      <trkpt lat="36.392010" lon="-116.848220">
        <ele>-70.390</ele>
        <time>2018-12-28T04:32:42Z</time>
      </trkpt>
      <trkpt lat="36.392070" lon="-116.848200">
        <ele>-69.849</ele>
        <time>2018-12-28T04:33:02Z</time>
      </trkpt>
      <trkpt lat="36.392170" lon="-116.848160">
        <ele>-69.458</ele>
        <time>2018-12-28T04:33:22Z</time>
      </trkpt>
      <trkpt lat="36.392230" lon="-116.848140">
        <ele>-69.248</ele>
        <time>2018-12-28T04:33:42Z</time>
      </trkpt>
      <trkpt lat="36.392290" lon="-116.848130">
        <ele>-69.055</ele>
        <time>2018-12-28T04:34:02Z</time>
      </trkpt>
      <trkpt lat="36.392380" lon="-116.848110">
        <ele>-68.807</ele>
        <time>2018-12-28T04:34:22Z</time>
      </trkpt>
      <trkpt lat="36.392470" lon="-116.848090">
        <ele>-68.417</ele>
        <time>2018-12-28T04:34:42Z</time>
      </trkpt>
      <trkpt lat="36.393010" lon="-116.848020">
        <ele>-66.708</ele>
        <time>2018-12-28T04:35:02Z</time>
      </trkpt>
      <trkpt lat="36.393540" lon="-116.847940">
        <ele>-65.678</ele>
        <time>2018-12-28T04:35:22Z</time>
      </trkpt>
      <trkpt lat="36.394090" lon="-116.847850">
        <ele>-65.446</ele>
        <time>2018-12-28T04:35:42Z</time>
      </trkpt>
      <trkpt lat="36.394470" lon="-116.847790">
        <ele>-65.231</ele>
        <time>2018-12-28T04:36:02Z</time>
      </trkpt>
      <trkpt lat="36.395010" lon="-116.847710">
        <ele>-64.342</ele>
        <time>2018-12-28T04:36:22Z</time>
      </trkpt>
      <trkpt lat="36.395600" lon="-116.847620">
        <ele>-63.146</ele>
        <time>2018-12-28T04:36:42Z</time>
      </trkpt>
      <trkpt lat="36.396270" lon="-116.847510">
        <ele>-62.325</ele>
        <time>2018-12-28T04:37:02Z</time>
      </trkpt>
      <trkpt lat="36.396590" lon="-116.847460">
        <ele>-62.054</ele>
        <time>2018-12-28T04:37:22Z</time>
      </trkpt>
      <trkpt lat="36.396620" lon="-116.847460">
        <ele>-62.034</ele>
        <time>2018-12-28T04:37:42Z</time>
      </trkpt>
      <trkpt lat="36.396970" lon="-116.847410">
        <ele>-61.623</ele>
        <time>2018-12-28T04:38:02Z</time>
      </trkpt>
      <trkpt lat="36.397210" lon="-116.847370">
        <ele>-61.483</ele>
        <time>2018-12-28T04:38:22Z</time>
      </trkpt>
      <trkpt lat="36.397810" lon="-116.847290">
        <ele>-61.311</ele>
        <time>2018-12-28T04:38:42Z</time>
      </trkpt>
      <trkpt lat="36.398380" lon="-116.847210">
        <ele>-61.308</ele>
        <time>2018-12-28T04:39:02Z</time>
      </trkpt>
      <trkpt lat="36.399260" lon="-116.847080">
        <ele>-61.745</ele>
        <time>2018-12-28T04:39:22Z</time>
      </trkpt>
      <trkpt lat="36.400130" lon="-116.846960">
        <ele>-62.443</ele>
        <time>2018-12-28T04:39:42Z</time>
      </trkpt>
      <trkpt lat="36.400920" lon="-116.846840">
        <ele>-63.288</ele>
        <time>2018-12-28T04:40:02Z</time>
      </trkpt>
      <trkpt lat="36.403330" lon="-116.846520">
        <ele>-63.069</ele>
        <time>2018-12-28T04:40:22Z</time>
      </trkpt>
      <trkpt lat="36.404210" lon="-116.846390">
        <ele>-62.513</ele>
        <time>2018-12-28T04:40:42Z</time>
      </trkpt>
      <trkpt lat="36.404980" lon="-116.846280">
        <ele>-59.952</ele>
        <time>2018-12-28T04:41:02Z</time>
      </trkpt>
      <trkpt lat="36.405860" lon="-116.846150">
        <ele>-56.891</ele>
        <time>2018-12-28T04:41:22Z</time>
      </trkpt>
      <trkpt lat="36.406620" lon="-116.846050">
        <ele>-53.351</ele>
        <time>2018-12-28T04:41:42Z</time>
      </trkpt>
      <trkpt lat="36.407280" lon="-116.845950">
        <ele>-50.393</ele>
        <time>2018-12-28T04:42:02Z</time>
      </trkpt>
      <trkpt lat="36.408050" lon="-116.845840">
        <ele>-47.965</ele>
        <time>2018-12-28T04:42:22Z</time>
      </trkpt>
      <trkpt lat="36.408600" lon="-116.845750">
        <ele>-47.521</ele>
        <time>2018-12-28T04:42:42Z</time>
      </trkpt>
      <trkpt lat="36.409270" lon="-116.845660">
        <ele>-47.108</ele>
        <time>2018-12-28T04:43:02Z</time>
      </trkpt>
      <trkpt lat="36.409760" lon="-116.845620">
        <ele>-47.092</ele>
        <time>2018-12-28T04:43:22Z</time>
      </trkpt>
      <trkpt lat="36.410380" lon="-116.845590">
        <ele>-47.080</ele>
        <time>2018-12-28T04:43:42Z</time>
      </trkpt>
      <trkpt lat="36.410720" lon="-116.845590">
        <ele>-47.175</ele>
        <time>2018-12-28T04:44:02Z</time>
      </trkpt>
      <trkpt lat="36.411160" lon="-116.845610">
        <ele>-47.346</ele>
        <time>2018-12-28T04:44:22Z</time>
      </trkpt>
      <trkpt lat="36.411720" lon="-116.845640">
        <ele>-50.410</ele>
        <time>2018-12-28T04:44:42Z</time>
      </trkpt>
      <trkpt lat="36.412140" lon="-116.845680">
        <ele>-53.099</ele>
        <time>2018-12-28T04:45:02Z</time>
      </trkpt>
      <trkpt lat="36.412320" lon="-116.845710">
        <ele>-53.478</ele>
        <time>2018-12-28T04:45:22Z</time>
      </trkpt>
      <trkpt lat="36.412690" lon="-116.845760">
        <ele>-54.088</ele>
        <time>2018-12-28T04:45:42Z</time>
      </trkpt>
      <trkpt lat="36.413130" lon="-116.845840">
        <ele>-54.833</ele>
        <time>2018-12-28T04:46:02Z</time>
      </trkpt>
      <trkpt lat="36.413510" lon="-116.845930">
        <ele>-55.923</ele>
        <time>2018-12-28T04:46:22Z</time>
      </trkpt>
      <trkpt lat="36.416390" lon="-116.846650">
        <ele>-58.415</ele>
        <time>2018-12-28T04:46:42Z</time>
      </trkpt>
      <trkpt lat="36.418560" lon="-116.847200">
        <ele>-55.208</ele>
        <time>2018-12-28T04:47:02Z</time>
      </trkpt>
      <trkpt lat="36.420480" lon="-116.847680">
        <ele>-49.696</ele>
        <time>2018-12-28T04:47:22Z</time>
      </trkpt>
      <trkpt lat="36.422780" lon="-116.848250">
        <ele>-58.094</ele>
        <time>2018-12-28T04:47:42Z</time>
      </trkpt>
      <trkpt lat="36.423720" lon="-116.848490">
        <ele>-60.699</ele>
        <time>2018-12-28T04:48:02Z</time>
      </trkpt>
      <trkpt lat="36.424300" lon="-116.848650">
        <ele>-60.610</ele>
        <time>2018-12-28T04:48:22Z</time>
      </trkpt>
      <trkpt lat="36.425190" lon="-116.848870">
        <ele>-60.394</ele>
        <time>2018-12-28T04:48:42Z</time>
      </trkpt>
      <trkpt lat="36.425920" lon="-116.849060">
        <ele>-56.593</ele>
        <time>2018-12-28T04:49:02Z</time>
      </trkpt>
      <trkpt lat="36.426450" lon="-116.849250">
        <ele>-56.152</ele>
        <time>2018-12-28T04:49:22Z</time>
      </trkpt>
      <trkpt lat="36.426710" lon="-116.849370">
        <ele>-56.652</ele>
        <time>2018-12-28T04:49:42Z</time>
      </trkpt>
      <trkpt lat="36.427060" lon="-116.849570">
        <ele>-57.527</ele>
        <time>2018-12-28T04:50:02Z</time>
      </trkpt>
      <trkpt lat="36.427140" lon="-116.849610">
        <ele>-57.668</ele>
        <time>2018-12-28T04:50:22Z</time>
      </trkpt>
      <trkpt lat="36.427210" lon="-116.849650">
        <ele>-57.714</ele>
        <time>2018-12-28T04:50:42Z</time>
      </trkpt>
      <trkpt lat="36.427290" lon="-116.849690">
        <ele>-57.808</ele>
        <time>2018-12-28T04:51:02Z</time>
      </trkpt>
      <trkpt lat="36.427360" lon="-116.849730">
        <ele>-57.825</ele>
        <time>2018-12-28T04:51:22Z</time>
      </trkpt>
      <trkpt lat="36.427440" lon="-116.849780">
        <ele>-57.953</ele>
        <time>2018-12-28T04:51:42Z</time>
      </trkpt>
      <trkpt lat="36.427510" lon="-116.849820">
        <ele>-57.918</ele>
        <time>2018-12-28T04:52:02Z</time>
      </trkpt>
      <trkpt lat="36.427580" lon="-116.849870">
        <ele>-57.959</ele>
        <time>2018-12-28T04:52:22Z</time>
      </trkpt>
      <trkpt lat="36.427660" lon="-116.849920">
        <ele>-57.943</ele>
        <time>2018-12-28T04:52:42Z</time>
      </trkpt>
      <trkpt lat="36.427730" lon="-116.849970">
        <ele>-57.842</ele>
        <time>2018-12-28T04:53:02Z</time>
      </trkpt>
      <trkpt lat="36.427810" lon="-116.850020">
        <ele>-57.731</ele>
        <time>2018-12-28T04:53:22Z</time>
      </trkpt>
      <trkpt lat="36.427890" lon="-116.850080">
        <ele>-57.651</ele>
        <time>2018-12-28T04:53:42Z</time>
      </trkpt>
      <trkpt lat="36.427970" lon="-116.850140">
        <ele>-57.442</ele>
        <time>2018-12-28T04:54:02Z</time>
      </trkpt>
      <trkpt lat="36.428040" lon="-116.850190">
        <ele>-57.222</ele>
        <time>2018-12-28T04:54:22Z</time>
      </trkpt>
      <trkpt lat="36.428120" lon="-116.850250">
        <ele>-56.914</ele>
        <time>2018-12-28T04:54:42Z</time>
      </trkpt>
      <trkpt lat="36.428190" lon="-116.850310">
        <ele>-56.708</ele>
        <time>2018-12-28T04:55:02Z</time>
      </trkpt>
      <trkpt lat="36.428270" lon="-116.850370">
        <ele>-56.687</ele>
        <time>2018-12-28T04:55:22Z</time>
      </trkpt>
      <trkpt lat="36.428340" lon="-116.850430">
        <ele>-56.475</ele>
        <time>2018-12-28T04:55:42Z</time>
      </trkpt>
      <trkpt lat="36.429330" lon="-116.851200">
        <ele>-54.260</ele>
        <time>2018-12-28T04:56:02Z</time>
      </trkpt>
      <trkpt lat="36.430280" lon="-116.851950">
        <ele>-52.061</ele>
        <time>2018-12-28T04:56:22Z</time>
      </trkpt>
      <trkpt lat="36.430350" lon="-116.852000">
        <ele>-51.995</ele>
        <time>2018-12-28T04:56:42Z</time>
      </trkpt>
      <trkpt lat="36.430480" lon="-116.852090">
        <ele>-51.884</ele>
        <time>2018-12-28T04:57:02Z</time>
      </trkpt>
      <trkpt lat="36.430600" lon="-116.852150">
        <ele>-51.733</ele>
        <time>2018-12-28T04:57:22Z</time>
      </trkpt>
      <trkpt lat="36.430670" lon="-116.852180">
        <ele>-51.743</ele>
        <time>2018-12-28T04:57:42Z</time>
      </trkpt>
      <trkpt lat="36.430750" lon="-116.852200">
        <ele>-51.692</ele>
        <time>2018-12-28T04:58:02Z</time>
      </trkpt>
      <trkpt lat="36.430810" lon="-116.852210">
        <ele>-51.573</ele>
        <time>2018-12-28T04:58:22Z</time>
      </trkpt>
      <trkpt lat="36.430870" lon="-116.852220">
        <ele>-51.420</ele>
        <time>2018-12-28T04:58:42Z</time>
      </trkpt>
      <trkpt lat="36.430930" lon="-116.852220">
        <ele>-51.308</ele>
        <time>2018-12-28T04:59:02Z</time>
      </trkpt>
      <trkpt lat="36.431000" lon="-116.852230">
        <ele>-51.222</ele>
        <time>2018-12-28T04:59:22Z</time>
      </trkpt>
      <trkpt lat="36.431060" lon="-116.852220">
        <ele>-51.120</ele>
        <time>2018-12-28T04:59:42Z</time>
      </trkpt>
      <trkpt lat="36.431120" lon="-116.852220">
        <ele>-51.075</ele>
        <time>2018-12-28T05:00:02Z</time>
      </trkpt>
      <trkpt lat="36.431180" lon="-116.852210">
        <ele>-50.986</ele>
        <time>2018-12-28T05:00:22Z</time>
      </trkpt>
      <trkpt lat="36.431250" lon="-116.852190">
        <ele>-50.750</ele>
        <time>2018-12-28T05:00:42Z</time>
      </trkpt>
      <trkpt lat="36.431300" lon="-116.852180">
        <ele>-50.669</ele>
        <time>2018-12-28T05:01:02Z</time>
      </trkpt>
      <trkpt lat="36.431360" lon="-116.852160">
        <ele>-50.588</ele>
        <time>2018-12-28T05:01:22Z</time>
      </trkpt>
      <trkpt lat="36.431410" lon="-116.852140">
        <ele>-50.478</ele>
        <time>2018-12-28T05:01:42Z</time>
      </trkpt>
      <trkpt lat="36.431460" lon="-116.852120">
        <ele>-50.211</ele>
        <time>2018-12-28T05:02:02Z</time>
      </trkpt>
      <trkpt lat="36.431510" lon="-116.852100">
        <ele>-50.121</ele>
        <time>2018-12-28T05:02:22Z</time>
      </trkpt>
      <trkpt lat="36.431560" lon="-116.852070">
        <ele>-50.003</ele>
        <time>2018-12-28T05:02:42Z</time>
      </trkpt>
      <trkpt lat="36.431620" lon="-116.852040">
        <ele>-49.908</ele>
        <time>2018-12-28T05:03:02Z</time>
      </trkpt>
      <trkpt lat="36.431660" lon="-116.852010">
        <ele>-49.854</ele>
        <time>2018-12-28T05:03:22Z</time>
      </trkpt>
      <trkpt lat="36.431690" lon="-116.851990">
        <ele>-49.822</ele>
        <time>2018-12-28T05:03:42Z</time>
      </trkpt>
      <trkpt lat="36.432290" lon="-116.851530">
        <ele>-49.067</ele>
        <time>2018-12-28T05:04:02Z</time>
      </trkpt>
      <trkpt lat="36.432480" lon="-116.851410">
        <ele>-48.968</ele>
        <time>2018-12-28T05:04:22Z</time>
      </trkpt>
      <trkpt lat="36.432670" lon="-116.851320">
        <ele>-49.052</ele>
        <time>2018-12-28T05:04:42Z</time>
      </trkpt>
      <trkpt lat="36.432860" lon="-116.851270">
        <ele>-49.221</ele>
        <time>2018-12-28T05:05:02Z</time>
      </trkpt>
      <trkpt lat="36.433050" lon="-116.851230">
        <ele>-49.150</ele>
        <time>2018-12-28T05:05:22Z</time>
      </trkpt>
      <trkpt lat="36.433250" lon="-116.851230">
        <ele>-48.970</ele>
        <time>2018-12-28T05:05:42Z</time>
      </trkpt>
      <trkpt lat="36.433900" lon="-116.851270">
        <ele>-48.933</ele>
        <time>2018-12-28T05:06:02Z</time>
      </trkpt>
      <trkpt lat="36.434340" lon="-116.851280">
        <ele>-49.023</ele>
        <time>2018-12-28T05:06:22Z</time>
      </trkpt>
      <trkpt lat="36.436240" lon="-116.851380">
        <ele>-39.415</ele>
        <time>2018-12-28T05:06:42Z</time>
      </trkpt>
      <trkpt lat="36.437580" lon="-116.851450">
        <ele>-37.708</ele>
        <time>2018-12-28T05:07:02Z</time>
      </trkpt>
      <trkpt lat="36.437850" lon="-116.851470">
        <ele>-37.256</ele>
        <time>2018-12-28T05:07:22Z</time>
      </trkpt>
      <trkpt lat="36.437970" lon="-116.851490">
        <ele>-36.824</ele>
        <time>2018-12-28T05:07:42Z</time>
      </trkpt>
      <trkpt lat="36.438070" lon="-116.851510">
        <ele>-36.549</ele>
        <time>2018-12-28T05:08:02Z</time>
      </trkpt>
      <trkpt lat="36.438210" lon="-116.851550">
        <ele>-36.010</ele>
        <time>2018-12-28T05:08:22Z</time>
      </trkpt>
      <trkpt lat="36.438320" lon="-116.851590">
        <ele>-34.834</ele>
        <time>2018-12-28T05:08:42Z</time>
      </trkpt>
      <trkpt lat="36.438440" lon="-116.851650">
        <ele>-33.633</ele>
        <time>2018-12-28T05:09:02Z</time>
      </trkpt>
      <trkpt lat="36.438670" lon="-116.851770">
        <ele>-31.822</ele>
        <time>2018-12-28T05:09:22Z</time>
      </trkpt>
      <trkpt lat="36.438830" lon="-116.851870">
        <ele>-30.972</ele>
        <time>2018-12-28T05:09:42Z</time>
      </trkpt>
      <trkpt lat="36.439180" lon="-116.852040">
        <ele>-28.999</ele>
        <time>2018-12-28T05:10:02Z</time>
      </trkpt>
      <trkpt lat="36.439330" lon="-116.852080">
        <ele>-28.107</ele>
        <time>2018-12-28T05:10:22Z</time>
      </trkpt>
      <trkpt lat="36.439500" lon="-116.852120">
        <ele>-27.427</ele>
        <time>2018-12-28T05:10:42Z</time>
      </trkpt>
      <trkpt lat="36.439660" lon="-116.852140">
        <ele>-26.708</ele>
        <time>2018-12-28T05:11:02Z</time>
      </trkpt>
      <trkpt lat="36.439810" lon="-116.852130">
        <ele>-26.032</ele>
        <time>2018-12-28T05:11:22Z</time>
      </trkpt>
      <trkpt lat="36.439970" lon="-116.852110">
        <ele>-25.420</ele>
        <time>2018-12-28T05:11:42Z</time>
      </trkpt>
      <trkpt lat="36.440120" lon="-116.852080">
        <ele>-24.895</ele>
        <time>2018-12-28T05:12:02Z</time>
      </trkpt>
      <trkpt lat="36.440260" lon="-116.852030">
        <ele>-24.096</ele>
        <time>2018-12-28T05:12:22Z</time>
      </trkpt>
      <trkpt lat="36.440390" lon="-116.851970">
        <ele>-23.240</ele>
        <time>2018-12-28T05:12:42Z</time>
      </trkpt>
      <trkpt lat="36.440630" lon="-116.851860">
        <ele>-22.139</ele>
        <time>2018-12-28T05:13:02Z</time>
      </trkpt>
      <trkpt lat="36.440910" lon="-116.851720">
        <ele>-20.898</ele>
        <time>2018-12-28T05:13:22Z</time>
      </trkpt>
      <trkpt lat="36.441190" lon="-116.851600">
        <ele>-19.628</ele>
        <time>2018-12-28T05:13:42Z</time>
      </trkpt>
      <trkpt lat="36.441350" lon="-116.851560">
        <ele>-18.899</ele>
        <time>2018-12-28T05:14:02Z</time>
      </trkpt>
      <trkpt lat="36.441520" lon="-116.851540">
        <ele>-17.907</ele>
        <time>2018-12-28T05:14:22Z</time>
      </trkpt>
      <trkpt lat="36.441860" lon="-116.851510">
        <ele>-15.927</ele>
        <time>2018-12-28T05:14:42Z</time>
      </trkpt>
      <trkpt lat="36.442400" lon="-116.851490">
        <ele>-14.308</ele>
        <time>2018-12-28T05:15:02Z</time>
      </trkpt>
      <trkpt lat="36.442740" lon="-116.851470">
        <ele>-14.152</ele>
        <time>2018-12-28T05:15:22Z</time>
      </trkpt>
      <trkpt lat="36.443100" lon="-116.851440">
        <ele>-13.810</ele>
        <time>2018-12-28T05:15:42Z</time>
      </trkpt>
      <trkpt lat="36.443330" lon="-116.851430">
        <ele>-13.485</ele>
        <time>2018-12-28T05:16:02Z</time>
      </trkpt>
      <trkpt lat="36.443660" lon="-116.851410">
        <ele>-12.876</ele>
        <time>2018-12-28T05:16:22Z</time>
      </trkpt>
      <trkpt lat="36.443890" lon="-116.851390">
        <ele>-12.670</ele>
        <time>2018-12-28T05:16:42Z</time>
      </trkpt>
      <trkpt lat="36.444210" lon="-116.851370">
        <ele>-11.739</ele>
        <time>2018-12-28T05:17:02Z</time>
      </trkpt>
      <trkpt lat="36.444340" lon="-116.851370">
        <ele>-11.258</ele>
        <time>2018-12-28T05:17:22Z</time>
      </trkpt>
      <trkpt lat="36.444450" lon="-116.851370">
        <ele>-10.518</ele>
        <time>2018-12-28T05:17:42Z</time>
      </trkpt>
      <trkpt lat="36.444550" lon="-116.851380">
        <ele>-10.094</ele>
        <time>2018-12-28T05:18:02Z</time>
      </trkpt>
      <trkpt lat="36.444630" lon="-116.851390">
        <ele>-9.357</ele>
        <time>2018-12-28T05:18:22Z</time>
      </trkpt>
      <trkpt lat="36.444710" lon="-116.851410">
        <ele>-8.622</ele>
        <time>2018-12-28T05:18:42Z</time>
      </trkpt>
      <trkpt lat="36.444800" lon="-116.851430">
        <ele>-7.808</ele>
        <time>2018-12-28T05:19:02Z</time>
      </trkpt>
      <trkpt lat="36.444890" lon="-116.851460">
        <ele>-7.232</ele>
        <time>2018-12-28T05:19:22Z</time>
      </trkpt>
      <trkpt lat="36.445010" lon="-116.851500">
        <ele>-6.040</ele>
        <time>2018-12-28T05:19:42Z</time>
      </trkpt>
      <trkpt lat="36.445260" lon="-116.851580">
        <ele>-3.665</ele>
        <time>2018-12-28T05:20:02Z</time>
      </trkpt>
      <trkpt lat="36.445420" lon="-116.851620">
        <ele>-2.466</ele>
        <time>2018-12-28T05:20:22Z</time>
      </trkpt>
      <trkpt lat="36.445590" lon="-116.851650">
        <ele>-2.680</ele>
        <time>2018-12-28T05:20:42Z</time>
      </trkpt>
      <trkpt lat="36.445680" lon="-116.851660">
        <ele>-2.559</ele>
        <time>2018-12-28T05:21:02Z</time>
      </trkpt>
      <trkpt lat="36.445890" lon="-116.851670">
        <ele>-2.488</ele>
        <time>2018-12-28T05:21:22Z</time>
      </trkpt>
      <trkpt lat="36.446200" lon="-116.851670">
        <ele>-1.578</ele>
        <time>2018-12-28T05:21:42Z</time>
      </trkpt>
      <trkpt lat="36.446530" lon="-116.851670">
        <ele>-1.024</ele>
        <time>2018-12-28T05:22:02Z</time>
      </trkpt>
      <trkpt lat="36.446760" lon="-116.851680">
        <ele>-0.804</ele>
        <time>2018-12-28T05:22:22Z</time>
      </trkpt>
      <trkpt lat="36.446930" lon="-116.851690">
        <ele>-0.214</ele>
        <time>2018-12-28T05:22:42Z</time>
      </trkpt>
      <trkpt lat="36.447060" lon="-116.851730">
        <ele>-0.108</ele>
        <time>2018-12-28T05:23:02Z</time>
      </trkpt>
      <trkpt lat="36.447210" lon="-116.851780">
        <ele>-0.185</ele>
        <time>2018-12-28T05:23:22Z</time>
      </trkpt>
      <trkpt lat="36.447370" lon="-116.851850">
        <ele>-0.233</ele>
        <time>2018-12-28T05:23:42Z</time>
      </trkpt>
      <trkpt lat="36.447640" lon="-116.852060">
        <ele>-0.718</ele>
        <time>2018-12-28T05:24:02Z</time>
      </trkpt>
      <trkpt lat="36.448120" lon="-116.852460">
        <ele>0.819</ele>
        <time>2018-12-28T05:24:22Z</time>
      </trkpt>
      <trkpt lat="36.448430" lon="-116.852750">
        <ele>2.033</ele>
        <time>2018-12-28T05:24:42Z</time>
      </trkpt>
      <trkpt lat="36.448426" lon="-116.852749">
        <ele>2.072</ele>
        <time>2018-12-28T05:25:02Z</time>
      </trkpt>
      <trkpt lat="36.448550" lon="-116.852510">
        <ele>3.071</ele>
        <time>2018-12-28T05:25:22Z</time>
      </trkpt>
      <trkpt lat="36.448610" lon="-116.852410">
        <ele>3.711</ele>
        <time>2018-12-28T05:25:42Z</time>
      </trkpt>
      <trkpt lat="36.448670" lon="-116.852320">
        <ele>4.946</ele>
        <time>2018-12-28T05:26:02Z</time>
      </trkpt>
      <trkpt lat="36.448740" lon="-116.852240">
        <ele>6.688</ele>
        <time>2018-12-28T05:26:22Z</time>
      </trkpt>
      <trkpt lat="36.448800" lon="-116.852180">
        <ele>7.416</ele>
        <time>2018-12-28T05:26:42Z</time>
      </trkpt>
      <trkpt lat="36.448820" lon="-116.852160">
        <ele>7.608</ele>
        <time>2018-12-28T05:27:02Z</time>
      </trkpt>
      <trkpt lat="36.448940" lon="-116.852050">
        <ele>8.557</ele>
        <time>2018-12-28T05:27:22Z</time>
      </trkpt>
      <trkpt lat="36.449080" lon="-116.851930">
        <ele>9.125</ele>
        <time>2018-12-28T05:27:42Z</time>
      </trkpt>
      <trkpt lat="36.449230" lon="-116.851810">
        <ele>9.110</ele>
        <time>2018-12-28T05:28:02Z</time>
      </trkpt>
      <trkpt lat="36.449370" lon="-116.851710">
        <ele>8.771</ele>
        <time>2018-12-28T05:28:22Z</time>
      </trkpt>
      <trkpt lat="36.449480" lon="-116.851630">
        <ele>8.665</ele>
        <time>2018-12-28T05:28:42Z</time>
      </trkpt>
      <trkpt lat="36.449580" lon="-116.851550">
        <ele>8.574</ele>
        <time>2018-12-28T05:29:02Z</time>
      </trkpt>
      <trkpt lat="36.449690" lon="-116.851460">
        <ele>8.693</ele>
        <time>2018-12-28T05:29:22Z</time>
      </trkpt>
      <trkpt lat="36.449760" lon="-116.851400">
        <ele>8.723</ele>
        <time>2018-12-28T05:29:42Z</time>
      </trkpt>
      <trkpt lat="36.449950" lon="-116.851230">
        <ele>9.294</ele>
        <time>2018-12-28T05:30:02Z</time>
      </trkpt>
      <trkpt lat="36.450020" lon="-116.851150">
        <ele>9.557</ele>
        <time>2018-12-28T05:30:22Z</time>
      </trkpt>
      <trkpt lat="36.450100" lon="-116.851060">
        <ele>9.822</ele>
        <time>2018-12-28T05:30:42Z</time>
      </trkpt>
      <trkpt lat="36.450160" lon="-116.850980">
        <ele>10.008</ele>
        <time>2018-12-28T05:31:02Z</time>
      </trkpt>
      <trkpt lat="36.450260" lon="-116.850840">
        <ele>10.742</ele>
        <time>2018-12-28T05:31:22Z</time>
      </trkpt>
      <trkpt lat="36.450330" lon="-116.850730">
        <ele>11.170</ele>
        <time>2018-12-28T05:31:42Z</time>
      </trkpt>
      <trkpt lat="36.450430" lon="-116.850600">
        <ele>11.575</ele>
        <time>2018-12-28T05:32:02Z</time>
      </trkpt>
      <trkpt lat="36.450530" lon="-116.850440">
        <ele>12.296</ele>
        <time>2018-12-28T05:32:22Z</time>
      </trkpt>
      <trkpt lat="36.450680" lon="-116.850220">
        <ele>13.330</ele>
        <time>2018-12-28T05:32:42Z</time>
      </trkpt>
      <trkpt lat="36.450810" lon="-116.850010">
        <ele>14.649</ele>
        <time>2018-12-28T05:33:02Z</time>
      </trkpt>
      <trkpt lat="36.450960" lon="-116.849780">
        <ele>16.188</ele>
        <time>2018-12-28T05:33:22Z</time>
      </trkpt>
      <trkpt lat="36.451050" lon="-116.849650">
        <ele>17.048</ele>
        <time>2018-12-28T05:33:42Z</time>
      </trkpt>
      <trkpt lat="36.451110" lon="-116.849550">
        <ele>17.742</ele>
        <time>2018-12-28T05:34:02Z</time>
      </trkpt>
      <trkpt lat="36.451170" lon="-116.849450">
        <ele>18.322</ele>
        <time>2018-12-28T05:34:22Z</time>
      </trkpt>
      <trkpt lat="36.451250" lon="-116.849300">
        <ele>19.114</ele>
        <time>2018-12-28T05:34:42Z</time>
      </trkpt>
      <trkpt lat="36.451280" lon="-116.849250">
        <ele>19.508</ele>
        <time>2018-12-28T05:35:02Z</time>
      </trkpt>
      <trkpt lat="36.451300" lon="-116.849210">
        <ele>19.837</ele>
        <time>2018-12-28T05:35:22Z</time>
      </trkpt>
      <trkpt lat="36.451320" lon="-116.849170">
        <ele>20.055</ele>
        <time>2018-12-28T05:35:42Z</time>
      </trkpt>
      <trkpt lat="36.451330" lon="-116.849130">
        <ele>20.330</ele>
        <time>2018-12-28T05:36:02Z</time>
      </trkpt>
      <trkpt lat="36.451340" lon="-116.849090">
        <ele>20.531</ele>
        <time>2018-12-28T05:36:22Z</time>
      </trkpt>
      <trkpt lat="36.451360" lon="-116.849040">
        <ele>20.735</ele>
        <time>2018-12-28T05:36:42Z</time>
      </trkpt>
      <trkpt lat="36.451380" lon="-116.848990">
        <ele>20.824</ele>
        <time>2018-12-28T05:37:02Z</time>
      </trkpt>
      <trkpt lat="36.451390" lon="-116.848920">
        <ele>21.073</ele>
        <time>2018-12-28T05:37:22Z</time>
      </trkpt>
      <trkpt lat="36.451400" lon="-116.848860">
        <ele>21.243</ele>
        <time>2018-12-28T05:37:42Z</time>
      </trkpt>
      <trkpt lat="36.451410" lon="-116.848790">
        <ele>21.565</ele>
        <time>2018-12-28T05:38:02Z</time>
      </trkpt>
      <trkpt lat="36.451420" lon="-116.848720">
        <ele>21.668</ele>
        <time>2018-12-28T05:38:22Z</time>
      </trkpt>
      <trkpt lat="36.451420" lon="-116.848670">
        <ele>21.814</ele>
        <time>2018-12-28T05:38:42Z</time>
      </trkpt>
      <trkpt lat="36.451420" lon="-116.848630">
        <ele>21.908</ele>
        <time>2018-12-28T05:39:02Z</time>
      </trkpt>
      <trkpt lat="36.451420" lon="-116.848590">
        <ele>22.089</ele>
        <time>2018-12-28T05:39:22Z</time>
      </trkpt>
      <trkpt lat="36.451420" lon="-116.848360">
        <ele>22.697</ele>
        <time>2018-12-28T05:39:42Z</time>
      </trkpt>
      <trkpt lat="36.451420" lon="-116.848140">
        <ele>23.152</ele>
        <time>2018-12-28T05:40:02Z</time>
      </trkpt>
      <trkpt lat="36.451400" lon="-116.847780">
        <ele>23.853</ele>
        <time>2018-12-28T05:40:22Z</time>
      </trkpt>
      <trkpt lat="36.451390" lon="-116.847670">
        <ele>24.017</ele>
        <time>2018-12-28T05:40:42Z</time>
      </trkpt>
      <trkpt lat="36.451380" lon="-116.847560">
        <ele>24.616</ele>
        <time>2018-12-28T05:41:02Z</time>
      </trkpt>
      <trkpt lat="36.451360" lon="-116.847380">
        <ele>25.735</ele>
        <time>2018-12-28T05:41:22Z</time>
      </trkpt>
      <trkpt lat="36.451320" lon="-116.847210">
        <ele>28.065</ele>
        <time>2018-12-28T05:41:42Z</time>
      </trkpt>
      <trkpt lat="36.451280" lon="-116.847060">
        <ele>30.341</ele>
        <time>2018-12-28T05:42:02Z</time>
      </trkpt>
      <trkpt lat="36.451130" lon="-116.846500">
        <ele>33.981</ele>
        <time>2018-12-28T05:42:22Z</time>
      </trkpt>
      <trkpt lat="36.450900" lon="-116.845620">
        <ele>34.309</ele>
        <time>2018-12-28T05:42:42Z</time>
      </trkpt>
      <trkpt lat="36.450520" lon="-116.844260">
        <ele>38.008</ele>
        <time>2018-12-28T05:43:02Z</time>
      </trkpt>
      <trkpt lat="36.450500" lon="-116.844180">
        <ele>38.327</ele>
        <time>2018-12-28T05:43:22Z</time>
      </trkpt>
      <trkpt lat="36.450480" lon="-116.844120">
        <ele>38.625</ele>
        <time>2018-12-28T05:43:42Z</time>
      </trkpt>
      <trkpt lat="36.450450" lon="-116.844040">
        <ele>39.150</ele>
        <time>2018-12-28T05:44:02Z</time>
      </trkpt>
      <trkpt lat="36.450430" lon="-116.843990">
        <ele>39.311</ele>
        <time>2018-12-28T05:44:22Z</time>
      </trkpt>
      <trkpt lat="36.450410" lon="-116.843950">
        <ele>39.695</ele>
        <time>2018-12-28T05:44:42Z</time>
      </trkpt>
      <trkpt lat="36.450390" lon="-116.843910">
        <ele>39.964</ele>
        <time>2018-12-28T05:45:02Z</time>
      </trkpt>
      <trkpt lat="36.450380" lon="-116.843870">
        <ele>40.283</ele>
        <time>2018-12-28T05:45:22Z</time>
      </trkpt>
      <trkpt lat="36.450350" lon="-116.843810">
        <ele>40.783</ele>
        <time>2018-12-28T05:45:42Z</time>
      </trkpt>
      <trkpt lat="36.450320" lon="-116.843760">
        <ele>41.325</ele>
        <time>2018-12-28T05:46:02Z</time>
      </trkpt>
      <trkpt lat="36.450300" lon="-116.843720">
        <ele>41.526</ele>
        <time>2018-12-28T05:46:22Z</time>
      </trkpt>
      <trkpt lat="36.450280" lon="-116.843680">
        <ele>41.508</ele>
        <time>2018-12-28T05:46:42Z</time>
      </trkpt>
      <trkpt lat="36.450240" lon="-116.843630">
        <ele>41.708</ele>
        <time>2018-12-28T05:47:02Z</time>
      </trkpt>
      <trkpt lat="36.450210" lon="-116.843590">
        <ele>41.825</ele>
        <time>2018-12-28T05:47:22Z</time>
      </trkpt>
      <trkpt lat="36.450180" lon="-116.843550">
        <ele>41.933</ele>
        <time>2018-12-28T05:47:42Z</time>
      </trkpt>
      <trkpt lat="36.450140" lon="-116.843500">
        <ele>41.918</ele>
        <time>2018-12-28T05:48:02Z</time>
      </trkpt>
      <trkpt lat="36.450090" lon="-116.843450">
        <ele>42.319</ele>
        <time>2018-12-28T05:48:22Z</time>
      </trkpt>
      <trkpt lat="36.450060" lon="-116.843420">
        <ele>42.553</ele>
        <time>2018-12-28T05:48:42Z</time>
      </trkpt>
      <trkpt lat="36.450020" lon="-116.843370">
        <ele>42.792</ele>
        <time>2018-12-28T05:49:02Z</time>
      </trkpt>
      <trkpt lat="36.449960" lon="-116.843330">
        <ele>43.061</ele>
        <time>2018-12-28T05:49:22Z</time>
      </trkpt>
      <trkpt lat="36.449890" lon="-116.843270">
        <ele>43.141</ele>
        <time>2018-12-28T05:49:42Z</time>
      </trkpt>
      <trkpt lat="36.449840" lon="-116.843230">
        <ele>43.062</ele>
        <time>2018-12-28T05:50:02Z</time>
      </trkpt>
      <trkpt lat="36.449810" lon="-116.843210">
        <ele>42.983</ele>
        <time>2018-12-28T05:50:22Z</time>
      </trkpt>
      <trkpt lat="36.449740" lon="-116.843170">
        <ele>43.011</ele>
        <time>2018-12-28T05:50:42Z</time>
      </trkpt>
      <trkpt lat="36.449650" lon="-116.843130">
        <ele>43.408</ele>
        <time>2018-12-28T05:51:02Z</time>
      </trkpt>
      <trkpt lat="36.449480" lon="-116.843040">
        <ele>43.899</ele>
        <time>2018-12-28T05:51:22Z</time>
      </trkpt>
      <trkpt lat="36.448970" lon="-116.842800">
        <ele>45.787</ele>
        <time>2018-12-28T05:51:42Z</time>
      </trkpt>
      <trkpt lat="36.447650" lon="-116.842170">
        <ele>50.772</ele>
        <time>2018-12-28T05:52:02Z</time>
      </trkpt>
      <trkpt lat="36.447250" lon="-116.841980">
        <ele>52.423</ele>
        <time>2018-12-28T05:52:22Z</time>
      </trkpt>
      <trkpt lat="36.447080" lon="-116.841900">
        <ele>53.797</ele>
        <time>2018-12-28T05:52:42Z</time>
      </trkpt>
      <trkpt lat="36.446970" lon="-116.841860">
        <ele>54.346</ele>
        <time>2018-12-28T05:53:02Z</time>
      </trkpt>
      <trkpt lat="36.446730" lon="-116.841750">
        <ele>56.285</ele>
        <time>2018-12-28T05:53:22Z</time>
      </trkpt>
      <trkpt lat="36.446540" lon="-116.841660">
        <ele>57.125</ele>
        <time>2018-12-28T05:53:42Z</time>
      </trkpt>
      <trkpt lat="36.446410" lon="-116.841580">
        <ele>57.499</ele>
        <time>2018-12-28T05:54:02Z</time>
      </trkpt>
      <trkpt lat="36.446270" lon="-116.841500">
        <ele>57.307</ele>
        <time>2018-12-28T05:54:22Z</time>
      </trkpt>
      <trkpt lat="36.446140" lon="-116.841420">
        <ele>57.627</ele>
        <time>2018-12-28T05:54:42Z</time>
      </trkpt>
      <trkpt lat="36.446060" lon="-116.841360">
        <ele>57.808</ele>
        <time>2018-12-28T05:55:02Z</time>
      </trkpt>
      <trkpt lat="36.445960" lon="-116.841290">
        <ele>57.982</ele>
        <time>2018-12-28T05:55:22Z</time>
      </trkpt>
      <trkpt lat="36.445880" lon="-116.841210">
        <ele>58.320</ele>
        <time>2018-12-28T05:55:42Z</time>
      </trkpt>
      <trkpt lat="36.445840" lon="-116.841160">
        <ele>58.585</ele>
        <time>2018-12-28T05:56:02Z</time>
      </trkpt>
      <trkpt lat="36.445800" lon="-116.841110">
        <ele>58.716</ele>
        <time>2018-12-28T05:56:22Z</time>
      </trkpt>
      <trkpt lat="36.445760" lon="-116.841060">
        <ele>58.870</ele>
        <time>2018-12-28T05:56:42Z</time>
      </trkpt>
      <trkpt lat="36.445730" lon="-116.841020">
        <ele>58.949</ele>
        <time>2018-12-28T05:57:02Z</time>
      </trkpt>
      <trkpt lat="36.445690" lon="-116.840950">
        <ele>59.068</ele>
        <time>2018-12-28T05:57:22Z</time>
      </trkpt>
      <trkpt lat="36.445650" lon="-116.840880">
        <ele>59.238</ele>
        <time>2018-12-28T05:57:42Z</time>
      </trkpt>
      <trkpt lat="36.445610" lon="-116.840800">
        <ele>59.549</ele>
        <time>2018-12-28T05:58:02Z</time>
      </trkpt>
      <trkpt lat="36.445580" lon="-116.840710">
        <ele>59.802</ele>
        <time>2018-12-28T05:58:22Z</time>
      </trkpt>
      <trkpt lat="36.445540" lon="-116.840610">
        <ele>60.322</ele>
        <time>2018-12-28T05:58:42Z</time>
      </trkpt>
      <trkpt lat="36.445510" lon="-116.840500">
        <ele>60.708</ele>
        <time>2018-12-28T05:59:02Z</time>
      </trkpt>
      <trkpt lat="36.445480" lon="-116.840420">
        <ele>60.727</ele>
        <time>2018-12-28T05:59:22Z</time>
      </trkpt>
      <trkpt lat="36.445440" lon="-116.840280">
        <ele>61.175</ele>
        <time>2018-12-28T05:59:42Z</time>
      </trkpt>
      <trkpt lat="36.445400" lon="-116.840140">
        <ele>60.640</ele>
        <time>2018-12-28T06:00:02Z</time>
      </trkpt>
      <trkpt lat="36.445360" lon="-116.839990">
        <ele>62.521</ele>
        <time>2018-12-28T06:00:22Z</time>
      </trkpt>
      <trkpt lat="36.445330" lon="-116.839900">
        <ele>63.465</ele>
        <time>2018-12-28T06:00:42Z</time>
      </trkpt>
      <trkpt lat="36.445290" lon="-116.839790">
        <ele>64.684</ele>
        <time>2018-12-28T06:01:02Z</time>
      </trkpt>
      <trkpt lat="36.445250" lon="-116.839700">
        <ele>65.553</ele>
        <time>2018-12-28T06:01:22Z</time>
      </trkpt>
      <trkpt lat="36.445210" lon="-116.839580">
        <ele>66.763</ele>
        <time>2018-12-28T06:01:42Z</time>
      </trkpt>
      <trkpt lat="36.445150" lon="-116.839470">
        <ele>67.668</ele>
        <time>2018-12-28T06:02:02Z</time>
      </trkpt>
      <trkpt lat="36.445100" lon="-116.839360">
        <ele>68.842</ele>
        <time>2018-12-28T06:02:22Z</time>
      </trkpt>
      <trkpt lat="36.445060" lon="-116.839300">
        <ele>69.226</ele>
        <time>2018-12-28T06:02:42Z</time>
      </trkpt>
      <trkpt lat="36.445010" lon="-116.839230">
        <ele>69.608</ele>
        <time>2018-12-28T06:03:02Z</time>
      </trkpt>
      <trkpt lat="36.444960" lon="-116.839150">
        <ele>70.089</ele>
        <time>2018-12-28T06:03:22Z</time>
      </trkpt>
      <trkpt lat="36.444910" lon="-116.839080">
        <ele>70.177</ele>
        <time>2018-12-28T06:03:42Z</time>
      </trkpt>
      <trkpt lat="36.444870" lon="-116.839030">
        <ele>70.212</ele>
        <time>2018-12-28T06:04:02Z</time>
      </trkpt>
      <trkpt lat="36.444820" lon="-116.838970">
        <ele>70.083</ele>
        <time>2018-12-28T06:04:22Z</time>
      </trkpt>
      <trkpt lat="36.444780" lon="-116.838910">
        <ele>69.997</ele>
        <time>2018-12-28T06:04:42Z</time>
      </trkpt>
      <trkpt lat="36.444740" lon="-116.838870">
        <ele>69.876</ele>
        <time>2018-12-28T06:05:02Z</time>
      </trkpt>
      <trkpt lat="36.444670" lon="-116.838800">
        <ele>69.745</ele>
        <time>2018-12-28T06:05:22Z</time>
      </trkpt>
      <trkpt lat="36.444590" lon="-116.838720">
        <ele>69.695</ele>
        <time>2018-12-28T06:05:42Z</time>
      </trkpt>
      <trkpt lat="36.444490" lon="-116.838640">
        <ele>69.724</ele>
        <time>2018-12-28T06:06:02Z</time>
      </trkpt>
      <trkpt lat="36.444360" lon="-116.838520">
        <ele>69.804</ele>
        <time>2018-12-28T06:06:22Z</time>
      </trkpt>
      <trkpt lat="36.444210" lon="-116.838390">
        <ele>70.214</ele>
        <time>2018-12-28T06:06:42Z</time>
      </trkpt>
      <trkpt lat="36.443990" lon="-116.838220">
        <ele>70.908</ele>
        <time>2018-12-28T06:07:02Z</time>
      </trkpt>
      <trkpt lat="36.443740" lon="-116.838030">
        <ele>72.935</ele>
        <time>2018-12-28T06:07:22Z</time>
      </trkpt>
      <trkpt lat="36.443550" lon="-116.837890">
        <ele>75.133</ele>
        <time>2018-12-28T06:07:42Z</time>
      </trkpt>
      <trkpt lat="36.443490" lon="-116.837840">
        <ele>75.918</ele>
        <time>2018-12-28T06:08:02Z</time>
      </trkpt>
      <trkpt lat="36.443430" lon="-116.837790">
        <ele>76.219</ele>
        <time>2018-12-28T06:08:22Z</time>
      </trkpt>
      <trkpt lat="36.443360" lon="-116.837720">
        <ele>76.593</ele>
        <time>2018-12-28T06:08:42Z</time>
      </trkpt>
      <trkpt lat="36.443310" lon="-116.837660">
        <ele>76.992</ele>
        <time>2018-12-28T06:09:02Z</time>
      </trkpt>
      <trkpt lat="36.443260" lon="-116.837610">
        <ele>77.381</ele>
        <time>2018-12-28T06:09:22Z</time>
      </trkpt>
      <trkpt lat="36.443210" lon="-116.837550">
        <ele>78.071</ele>
        <time>2018-12-28T06:09:42Z</time>
      </trkpt>
      <trkpt lat="36.443150" lon="-116.837480">
        <ele>78.512</ele>
        <time>2018-12-28T06:10:02Z</time>
      </trkpt>
      <trkpt lat="36.443060" lon="-116.837360">
        <ele>79.232</ele>
        <time>2018-12-28T06:10:22Z</time>
      </trkpt>
      <trkpt lat="36.442430" lon="-116.836530">
        <ele>81.905</ele>
        <time>2018-12-28T06:10:42Z</time>
      </trkpt>
      <trkpt lat="36.442320" lon="-116.836370">
        <ele>81.808</ele>
        <time>2018-12-28T06:11:02Z</time>
      </trkpt>
      <trkpt lat="36.442220" lon="-116.836230">
        <ele>82.044</ele>
        <time>2018-12-28T06:11:22Z</time>
      </trkpt>
      <trkpt lat="36.442150" lon="-116.836110">
        <ele>82.532</ele>
        <time>2018-12-28T06:11:42Z</time>
      </trkpt>
      <trkpt lat="36.442050" lon="-116.835910">
        <ele>83.467</ele>
        <time>2018-12-28T06:12:02Z</time>
      </trkpt>
      <trkpt lat="36.442000" lon="-116.835800">
        <ele>83.938</ele>
        <time>2018-12-28T06:12:22Z</time>
      </trkpt>
      <trkpt lat="36.441960" lon="-116.835700">
        <ele>84.342</ele>
        <time>2018-12-28T06:12:42Z</time>
      </trkpt>
      <trkpt lat="36.441930" lon="-116.835630">
        <ele>84.691</ele>
        <time>2018-12-28T06:13:02Z</time>
      </trkpt>
      <trkpt lat="36.441890" lon="-116.835530">
        <ele>84.860</ele>
        <time>2018-12-28T06:13:22Z</time>
      </trkpt>
      <trkpt lat="36.441860" lon="-116.835440">
        <ele>85.090</ele>
        <time>2018-12-28T06:13:42Z</time>
      </trkpt>
      <trkpt lat="36.441790" lon="-116.835200">
        <ele>85.314</ele>
        <time>2018-12-28T06:14:02Z</time>
      </trkpt>
      <trkpt lat="36.441690" lon="-116.834840">
        <ele>86.854</ele>
        <time>2018-12-28T06:14:22Z</time>
      </trkpt>
      <trkpt lat="36.441630" lon="-116.834650">
        <ele>88.709</ele>
        <time>2018-12-28T06:14:42Z</time>
      </trkpt>
      <trkpt lat="36.441550" lon="-116.834440">
        <ele>90.308</ele>
        <time>2018-12-28T06:15:02Z</time>
      </trkpt>
      <trkpt lat="36.441440" lon="-116.834170">
        <ele>91.954</ele>
        <time>2018-12-28T06:15:22Z</time>
      </trkpt>
      <trkpt lat="36.441290" lon="-116.833830">
        <ele>92.882</ele>
        <time>2018-12-28T06:15:42Z</time>
      </trkpt>
      <trkpt lat="36.441110" lon="-116.833430">
        <ele>93.487</ele>
        <time>2018-12-28T06:16:02Z</time>
      </trkpt>
      <trkpt lat="36.441040" lon="-116.833250">
        <ele>93.828</ele>
        <time>2018-12-28T06:16:22Z</time>
      </trkpt>
      <trkpt lat="36.440970" lon="-116.833090">
        <ele>94.092</ele>
        <time>2018-12-28T06:16:42Z</time>
      </trkpt>
      <trkpt lat="36.440910" lon="-116.832950">
        <ele>94.371</ele>
        <time>2018-12-28T06:17:02Z</time>
      </trkpt>
      <trkpt lat="36.440870" lon="-116.832810">
        <ele>94.770</ele>
        <time>2018-12-28T06:17:22Z</time>
      </trkpt>
      <trkpt lat="36.440830" lon="-116.832680">
        <ele>95.030</ele>
        <time>2018-12-28T06:17:42Z</time>
      </trkpt>
      <trkpt lat="36.440790" lon="-116.832570">
        <ele>95.336</ele>
        <time>2018-12-28T06:18:02Z</time>
      </trkpt>
      <trkpt lat="36.440710" lon="-116.832290">
        <ele>95.917</ele>
        <time>2018-12-28T06:18:22Z</time>
      </trkpt>
      <trkpt lat="36.440570" lon="-116.831770">
        <ele>96.618</ele>
        <time>2018-12-28T06:18:42Z</time>
      </trkpt>
      <trkpt lat="36.440450" lon="-116.831360">
        <ele>97.108</ele>
        <time>2018-12-28T06:19:02Z</time>
      </trkpt>
      <trkpt lat="36.440390" lon="-116.831180">
        <ele>97.566</ele>
        <time>2018-12-28T06:19:22Z</time>
      </trkpt>
      <trkpt lat="36.440320" lon="-116.831000">
        <ele>97.944</ele>
        <time>2018-12-28T06:19:42Z</time>
      </trkpt>
      <trkpt lat="36.440240" lon="-116.830770">
        <ele>98.489</ele>
        <time>2018-12-28T06:20:02Z</time>
      </trkpt>
      <trkpt lat="36.440100" lon="-116.830430">
        <ele>99.430</ele>
        <time>2018-12-28T06:20:22Z</time>
      </trkpt>
      <trkpt lat="36.439930" lon="-116.830010">
        <ele>101.074</ele>
        <time>2018-12-28T06:20:42Z</time>
      </trkpt>
      <trkpt lat="36.439780" lon="-116.829650">
        <ele>102.563</ele>
        <time>2018-12-28T06:21:02Z</time>
      </trkpt>
      <trkpt lat="36.439650" lon="-116.829340">
        <ele>103.722</ele>
        <time>2018-12-28T06:21:22Z</time>
      </trkpt>
      <trkpt lat="36.439360" lon="-116.828600">
        <ele>106.822</ele>
        <time>2018-12-28T06:21:42Z</time>
      </trkpt>
      <trkpt lat="36.438920" lon="-116.827470">
        <ele>110.067</ele>
        <time>2018-12-28T06:22:02Z</time>
      </trkpt>
      <trkpt lat="36.438490" lon="-116.826380">
        <ele>114.981</ele>
        <time>2018-12-28T06:22:22Z</time>
      </trkpt>
      <trkpt lat="36.437590" lon="-116.824120">
        <ele>124.519</ele>
        <time>2018-12-28T06:22:42Z</time>
      </trkpt>
      <trkpt lat="36.437270" lon="-116.823310">
        <ele>126.108</ele>
        <time>2018-12-28T06:23:02Z</time>
      </trkpt>
      <trkpt lat="36.436920" lon="-116.822420">
        <ele>128.249</ele>
        <time>2018-12-28T06:23:22Z</time>
      </trkpt>
      <trkpt lat="36.436730" lon="-116.821920">
        <ele>129.357</ele>
        <time>2018-12-28T06:23:42Z</time>
      </trkpt>
      <trkpt lat="36.436600" lon="-116.821580">
        <ele>130.292</ele>
        <time>2018-12-28T06:24:02Z</time>
      </trkpt>
      <trkpt lat="36.436470" lon="-116.821240">
        <ele>131.413</ele>
        <time>2018-12-28T06:24:22Z</time>
      </trkpt>
      <trkpt lat="36.436380" lon="-116.821020">
        <ele>132.377</ele>
        <time>2018-12-28T06:24:42Z</time>
      </trkpt>
      <trkpt lat="36.436320" lon="-116.820880">
        <ele>133.156</ele>
        <time>2018-12-28T06:25:02Z</time>
      </trkpt>
      <trkpt lat="36.436270" lon="-116.820750">
        <ele>133.845</ele>
        <time>2018-12-28T06:25:22Z</time>
      </trkpt>
      <trkpt lat="36.436160" lon="-116.820510">
        <ele>134.755</ele>
        <time>2018-12-28T06:25:42Z</time>
      </trkpt>
      <trkpt lat="36.436120" lon="-116.820430">
        <ele>135.055</ele>
        <time>2018-12-28T06:26:02Z</time>
      </trkpt>
      <trkpt lat="36.436020" lon="-116.820240">
        <ele>135.907</ele>
        <time>2018-12-28T06:26:22Z</time>
      </trkpt>
      <trkpt lat="36.435930" lon="-116.820070">
        <ele>136.417</ele>
        <time>2018-12-28T06:26:42Z</time>
      </trkpt>
      <trkpt lat="36.435800" lon="-116.819820">
        <ele>137.308</ele>
        <time>2018-12-28T06:27:02Z</time>
      </trkpt>
      <trkpt lat="36.435640" lon="-116.819550">
        <ele>138.268</ele>
        <time>2018-12-28T06:27:22Z</time>
      </trkpt>
      <trkpt lat="36.435530" lon="-116.819390">
        <ele>138.656</ele>
        <time>2018-12-28T06:27:42Z</time>
      </trkpt>
      <trkpt lat="36.435380" lon="-116.819160">
        <ele>139.171</ele>
        <time>2018-12-28T06:28:02Z</time>
      </trkpt>
      <trkpt lat="36.435270" lon="-116.818990">
        <ele>139.642</ele>
        <time>2018-12-28T06:28:22Z</time>
      </trkpt>
      <trkpt lat="36.435180" lon="-116.818870">
        <ele>139.996</ele>
        <time>2018-12-28T06:28:42Z</time>
      </trkpt>
      <trkpt lat="36.435080" lon="-116.818740">
        <ele>140.375</ele>
        <time>2018-12-28T06:29:02Z</time>
      </trkpt>
      <trkpt lat="36.434980" lon="-116.818620">
        <ele>140.844</ele>
        <time>2018-12-28T06:29:22Z</time>
      </trkpt>
      <trkpt lat="36.434890" lon="-116.818520">
        <ele>141.154</ele>
        <time>2018-12-28T06:29:42Z</time>
      </trkpt>
      <trkpt lat="36.434390" lon="-116.818010">
        <ele>142.227</ele>
        <time>2018-12-28T06:30:02Z</time>
      </trkpt>
      <trkpt lat="36.434120" lon="-116.817750">
        <ele>143.068</ele>
        <time>2018-12-28T06:30:22Z</time>
      </trkpt>
      <trkpt lat="36.433920" lon="-116.817580">
        <ele>143.314</ele>
        <time>2018-12-28T06:30:42Z</time>
      </trkpt>
      <trkpt lat="36.433770" lon="-116.817450">
        <ele>143.508</ele>
        <time>2018-12-28T06:31:02Z</time>
      </trkpt>
      <trkpt lat="36.433560" lon="-116.817290">
        <ele>143.935</ele>
        <time>2018-12-28T06:31:22Z</time>
      </trkpt>
      <trkpt lat="36.433330" lon="-116.817130">
        <ele>144.483</ele>
        <time>2018-12-28T06:31:42Z</time>
      </trkpt>
      <trkpt lat="36.432790" lon="-116.816760">
        <ele>145.538</ele>
        <time>2018-12-28T06:32:02Z</time>
      </trkpt>
      <trkpt lat="36.432290" lon="-116.816430">
        <ele>147.819</ele>
        <time>2018-12-28T06:32:22Z</time>
      </trkpt>
      <trkpt lat="36.431930" lon="-116.816200">
        <ele>150.793</ele>
        <time>2018-12-28T06:32:42Z</time>
      </trkpt>
      <trkpt lat="36.431760" lon="-116.816090">
        <ele>151.742</ele>
        <time>2018-12-28T06:33:02Z</time>
      </trkpt>
      <trkpt lat="36.431200" lon="-116.815710">
        <ele>154.281</ele>
        <time>2018-12-28T06:33:22Z</time>
      </trkpt>
      <trkpt lat="36.430830" lon="-116.815470">
        <ele>156.291</ele>
        <time>2018-12-28T06:33:42Z</time>
      </trkpt>
      <trkpt lat="36.430440" lon="-116.815190">
        <ele>158.099</ele>
        <time>2018-12-28T06:34:02Z</time>
      </trkpt>
      <trkpt lat="36.430040" lon="-116.814930">
        <ele>160.107</ele>
        <time>2018-12-28T06:34:22Z</time>
      </trkpt>
      <trkpt lat="36.429680" lon="-116.814690">
        <ele>162.327</ele>
        <time>2018-12-28T06:34:42Z</time>
      </trkpt>
      <trkpt lat="36.429470" lon="-116.814550">
        <ele>163.408</ele>
        <time>2018-12-28T06:35:02Z</time>
      </trkpt>
      <trkpt lat="36.429270" lon="-116.814420">
        <ele>164.432</ele>
        <time>2018-12-28T06:35:22Z</time>
      </trkpt>
      <trkpt lat="36.429050" lon="-116.814270">
        <ele>165.210</ele>
        <time>2018-12-28T06:35:42Z</time>
      </trkpt>
      <trkpt lat="36.428800" lon="-116.814100">
        <ele>166.195</ele>
        <time>2018-12-28T06:36:02Z</time>
      </trkpt>
      <trkpt lat="36.428630" lon="-116.813990">
        <ele>166.796</ele>
        <time>2018-12-28T06:36:22Z</time>
      </trkpt>
      <trkpt lat="36.428430" lon="-116.813850">
        <ele>167.480</ele>
        <time>2018-12-28T06:36:42Z</time>
      </trkpt>
      <trkpt lat="36.428310" lon="-116.813770">
        <ele>167.869</ele>
        <time>2018-12-28T06:37:02Z</time>
      </trkpt>
      <trkpt lat="36.427850" lon="-116.813460">
        <ele>169.558</ele>
        <time>2018-12-28T06:37:22Z</time>
      </trkpt>
      <trkpt lat="36.427610" lon="-116.813300">
        <ele>170.588</ele>
        <time>2018-12-28T06:37:42Z</time>
      </trkpt>
      <trkpt lat="36.427400" lon="-116.813160">
        <ele>171.615</ele>
        <time>2018-12-28T06:38:02Z</time>
      </trkpt>
      <trkpt lat="36.427200" lon="-116.813030">
        <ele>173.065</ele>
        <time>2018-12-28T06:38:22Z</time>
      </trkpt>
      <trkpt lat="36.426960" lon="-116.812870">
        <ele>174.111</ele>
        <time>2018-12-28T06:38:42Z</time>
      </trkpt>
      <trkpt lat="36.426640" lon="-116.812660">
        <ele>175.008</ele>
        <time>2018-12-28T06:39:02Z</time>
      </trkpt>
      <trkpt lat="36.426410" lon="-116.812510">
        <ele>176.144</ele>
        <time>2018-12-28T06:39:22Z</time>
      </trkpt>
      <trkpt lat="36.426110" lon="-116.812310">
        <ele>177.352</ele>
        <time>2018-12-28T06:39:42Z</time>
      </trkpt>
      <trkpt lat="36.425900" lon="-116.812160">
        <ele>177.957</ele>
        <time>2018-12-28T06:40:02Z</time>
      </trkpt>
      <trkpt lat="36.425610" lon="-116.811970">
        <ele>179.258</ele>
        <time>2018-12-28T06:40:22Z</time>
      </trkpt>
      <trkpt lat="36.425310" lon="-116.811770">
        <ele>180.182</ele>
        <time>2018-12-28T06:40:42Z</time>
      </trkpt>
      <trkpt lat="36.425160" lon="-116.811670">
        <ele>180.941</ele>
        <time>2018-12-28T06:41:02Z</time>
      </trkpt>
      <trkpt lat="36.424870" lon="-116.811480">
        <ele>181.830</ele>
        <time>2018-12-28T06:41:22Z</time>
      </trkpt>
      <trkpt lat="36.424500" lon="-116.811240">
        <ele>183.170</ele>
        <time>2018-12-28T06:41:42Z</time>
      </trkpt>
      <trkpt lat="36.424100" lon="-116.810980">
        <ele>185.794</ele>
        <time>2018-12-28T06:42:02Z</time>
      </trkpt>
      <trkpt lat="36.423680" lon="-116.810690">
        <ele>187.357</ele>
        <time>2018-12-28T06:42:22Z</time>
      </trkpt>
      <trkpt lat="36.423380" lon="-116.810490">
        <ele>188.722</ele>
        <time>2018-12-28T06:42:42Z</time>
      </trkpt>
      <trkpt lat="36.422960" lon="-116.810210">
        <ele>190.608</ele>
        <time>2018-12-28T06:43:02Z</time>
      </trkpt>
      <trkpt lat="36.422600" lon="-116.809970">
        <ele>192.332</ele>
        <time>2018-12-28T06:43:22Z</time>
      </trkpt>
      <trkpt lat="36.422070" lon="-116.809610">
        <ele>193.970</ele>
        <time>2018-12-28T06:43:42Z</time>
      </trkpt>
      <trkpt lat="36.421880" lon="-116.809470">
        <ele>194.975</ele>
        <time>2018-12-28T06:44:02Z</time>
      </trkpt>
      <trkpt lat="36.421550" lon="-116.809230">
        <ele>196.326</ele>
        <time>2018-12-28T06:44:22Z</time>
      </trkpt>
      <trkpt lat="36.421360" lon="-116.809090">
        <ele>196.790</ele>
        <time>2018-12-28T06:44:42Z</time>
      </trkpt>
      <trkpt lat="36.421260" lon="-116.809010">
        <ele>197.019</ele>
        <time>2018-12-28T06:45:02Z</time>
      </trkpt>
      <trkpt lat="36.421020" lon="-116.808820">
        <ele>198.338</ele>
        <time>2018-12-28T06:45:22Z</time>
      </trkpt>
      <trkpt lat="36.420830" lon="-116.808630">
        <ele>199.788</ele>
        <time>2018-12-28T06:45:42Z</time>
      </trkpt>
      <trkpt lat="36.420690" lon="-116.808480">
        <ele>201.046</ele>
        <time>2018-12-28T06:46:02Z</time>
      </trkpt>
      <trkpt lat="36.420540" lon="-116.808320">
        <ele>202.188</ele>
        <time>2018-12-28T06:46:22Z</time>
      </trkpt>
      <trkpt lat="36.420310" lon="-116.808040">
        <ele>202.716</ele>
        <time>2018-12-28T06:46:42Z</time>
      </trkpt>
      <trkpt lat="36.419360" lon="-116.806850">
        <ele>208.408</ele>
        <time>2018-12-28T06:47:02Z</time>
      </trkpt>
      <trkpt lat="36.419040" lon="-116.806450">
        <ele>210.887</ele>
        <time>2018-12-28T06:47:22Z</time>
      </trkpt>
      <trkpt lat="36.418820" lon="-116.806170">
        <ele>212.415</ele>
        <time>2018-12-28T06:47:42Z</time>
      </trkpt>
      <trkpt lat="36.418600" lon="-116.805900">
        <ele>214.180</ele>
        <time>2018-12-28T06:48:02Z</time>
      </trkpt>
      <trkpt lat="36.418440" lon="-116.805730">
        <ele>214.911</ele>
        <time>2018-12-28T06:48:22Z</time>
      </trkpt>
      <trkpt lat="36.418360" lon="-116.805640">
        <ele>215.375</ele>
        <time>2018-12-28T06:48:42Z</time>
      </trkpt>
      <trkpt lat="36.418260" lon="-116.805540">
        <ele>215.934</ele>
        <time>2018-12-28T06:49:02Z</time>
      </trkpt>
      <trkpt lat="36.418100" lon="-116.805400">
        <ele>216.673</ele>
        <time>2018-12-28T06:49:22Z</time>
      </trkpt>
      <trkpt lat="36.417950" lon="-116.805280">
        <ele>217.033</ele>
        <time>2018-12-28T06:49:42Z</time>
      </trkpt>
      <trkpt lat="36.417650" lon="-116.805040">
        <ele>217.631</ele>
        <time>2018-12-28T06:50:02Z</time>
      </trkpt>
      <trkpt lat="36.417470" lon="-116.804890">
        <ele>218.461</ele>
        <time>2018-12-28T06:50:22Z</time>
      </trkpt>
      <trkpt lat="36.417320" lon="-116.804780">
        <ele>219.107</ele>
        <time>2018-12-28T06:50:42Z</time>
      </trkpt>
      <trkpt lat="36.416970" lon="-116.804540">
        <ele>222.308</ele>
        <time>2018-12-28T06:51:02Z</time>
      </trkpt>
      <trkpt lat="36.416620" lon="-116.804260">
        <ele>224.046</ele>
        <time>2018-12-28T06:51:22Z</time>
      </trkpt>
      <trkpt lat="36.416360" lon="-116.804070">
        <ele>224.994</ele>
        <time>2018-12-28T06:51:42Z</time>
      </trkpt>
      <trkpt lat="36.415750" lon="-116.803590">
        <ele>226.749</ele>
        <time>2018-12-28T06:52:02Z</time>
      </trkpt>
      <trkpt lat="36.415510" lon="-116.803400">
        <ele>227.280</ele>
        <time>2018-12-28T06:52:22Z</time>
      </trkpt>
      <trkpt lat="36.415310" lon="-116.803240">
        <ele>227.754</ele>
        <time>2018-12-28T06:52:42Z</time>
      </trkpt>
      <trkpt lat="36.415190" lon="-116.803150">
        <ele>228.093</ele>
        <time>2018-12-28T06:53:02Z</time>
      </trkpt>
      <trkpt lat="36.415060" lon="-116.803050">
        <ele>228.492</ele>
        <time>2018-12-28T06:53:22Z</time>
      </trkpt>
      <trkpt lat="36.414910" lon="-116.802930">
        <ele>229.042</ele>
        <time>2018-12-28T06:53:42Z</time>
      </trkpt>
      <trkpt lat="36.414890" lon="-116.802910">
        <ele>229.151</ele>
        <time>2018-12-28T06:54:02Z</time>
      </trkpt>
      <trkpt lat="36.414770" lon="-116.802800">
        <ele>229.901</ele>
        <time>2018-12-28T06:54:22Z</time>
      </trkpt>
      <trkpt lat="36.414670" lon="-116.802710">
        <ele>230.611</ele>
        <time>2018-12-28T06:54:42Z</time>
      </trkpt>
      <trkpt lat="36.414540" lon="-116.802580">
        <ele>231.408</ele>
        <time>2018-12-28T06:55:02Z</time>
      </trkpt>
      <trkpt lat="36.414390" lon="-116.802410">
        <ele>232.498</ele>
        <time>2018-12-28T06:55:22Z</time>
      </trkpt>
      <trkpt lat="36.414270" lon="-116.802280">
        <ele>233.176</ele>
        <time>2018-12-28T06:55:42Z</time>
      </trkpt>
      <trkpt lat="36.414140" lon="-116.802140">
        <ele>233.851</ele>
        <time>2018-12-28T06:56:02Z</time>
      </trkpt>
      <trkpt lat="36.414010" lon="-116.801950">
        <ele>234.512</ele>
        <time>2018-12-28T06:56:22Z</time>
      </trkpt>
      <trkpt lat="36.413870" lon="-116.801760">
        <ele>235.336</ele>
        <time>2018-12-28T06:56:42Z</time>
      </trkpt>
      <trkpt lat="36.413720" lon="-116.801530">
        <ele>236.095</ele>
        <time>2018-12-28T06:57:02Z</time>
      </trkpt>
      <trkpt lat="36.413610" lon="-116.801370">
        <ele>237.744</ele>
        <time>2018-12-28T06:57:22Z</time>
      </trkpt>
      <trkpt lat="36.413600" lon="-116.801350">
        <ele>237.864</ele>
        <time>2018-12-28T06:57:42Z</time>
      </trkpt>
      <trkpt lat="36.413530" lon="-116.801240">
        <ele>238.764</ele>
        <time>2018-12-28T06:58:02Z</time>
      </trkpt>
      <trkpt lat="36.413400" lon="-116.801020">
        <ele>239.906</ele>
        <time>2018-12-28T06:58:22Z</time>
      </trkpt>
      <trkpt lat="36.412670" lon="-116.799770">
        <ele>243.616</ele>
        <time>2018-12-28T06:58:42Z</time>
      </trkpt>
      <trkpt lat="36.412430" lon="-116.799360">
        <ele>245.608</ele>
        <time>2018-12-28T06:59:02Z</time>
      </trkpt>
      <trkpt lat="36.411910" lon="-116.798490">
        <ele>248.729</ele>
        <time>2018-12-28T06:59:22Z</time>
      </trkpt>
      <trkpt lat="36.411590" lon="-116.797930">
        <ele>250.317</ele>
        <time>2018-12-28T06:59:42Z</time>
      </trkpt>
      <trkpt lat="36.410950" lon="-116.796840">
        <ele>254.312</ele>
        <time>2018-12-28T07:00:02Z</time>
      </trkpt>
      <trkpt lat="36.410350" lon="-116.795850">
        <ele>257.663</ele>
        <time>2018-12-28T07:00:22Z</time>
      </trkpt>
      <trkpt lat="36.409920" lon="-116.795150">
        <ele>261.837</ele>
        <time>2018-12-28T07:00:42Z</time>
      </trkpt>
      <trkpt lat="36.409680" lon="-116.794720">
        <ele>262.856</ele>
        <time>2018-12-28T07:01:02Z</time>
      </trkpt>
      <trkpt lat="36.408820" lon="-116.793250">
        <ele>265.865</ele>
        <time>2018-12-28T07:01:22Z</time>
      </trkpt>
      <trkpt lat="36.408620" lon="-116.792900">
        <ele>267.085</ele>
        <time>2018-12-28T07:01:42Z</time>
      </trkpt>
      <trkpt lat="36.408340" lon="-116.792450">
        <ele>269.449</ele>
        <time>2018-12-28T07:02:02Z</time>
      </trkpt>
      <trkpt lat="36.408090" lon="-116.792040">
        <ele>270.902</ele>
        <time>2018-12-28T07:02:22Z</time>
      </trkpt>
      <trkpt lat="36.407830" lon="-116.791560">
        <ele>272.322</ele>
        <time>2018-12-28T07:02:42Z</time>
      </trkpt>
      <trkpt lat="36.407620" lon="-116.791160">
        <ele>273.608</ele>
        <time>2018-12-28T07:03:02Z</time>
      </trkpt>
      <trkpt lat="36.407430" lon="-116.790790">
        <ele>275.127</ele>
        <time>2018-12-28T07:03:22Z</time>
      </trkpt>
      <trkpt lat="36.407200" lon="-116.790300">
        <ele>277.225</ele>
        <time>2018-12-28T07:03:42Z</time>
      </trkpt>
      <trkpt lat="36.407040" lon="-116.789910">
        <ele>278.570</ele>
        <time>2018-12-28T07:04:02Z</time>
      </trkpt>
      <trkpt lat="36.406920" lon="-116.789590">
        <ele>279.791</ele>
        <time>2018-12-28T07:04:22Z</time>
      </trkpt>
      <trkpt lat="36.406520" lon="-116.788410">
        <ele>285.415</ele>
        <time>2018-12-28T07:04:42Z</time>
      </trkpt>
      <trkpt lat="36.404860" lon="-116.783020">
        <ele>304.524</ele>
        <time>2018-12-28T07:05:02Z</time>
      </trkpt>
      <trkpt lat="36.404810" lon="-116.782840">
        <ele>305.133</ele>
        <time>2018-12-28T07:05:22Z</time>
      </trkpt>
      <trkpt lat="36.404610" lon="-116.782220">
        <ele>308.233</ele>
        <time>2018-12-28T07:05:42Z</time>
      </trkpt>
      <trkpt lat="36.402740" lon="-116.776080">
        <ele>326.424</ele>
        <time>2018-12-28T07:06:02Z</time>
      </trkpt>
      <trkpt lat="36.402320" lon="-116.774730">
        <ele>331.104</ele>
        <time>2018-12-28T07:06:22Z</time>
      </trkpt>
      <trkpt lat="36.402230" lon="-116.774430">
        <ele>331.914</ele>
        <time>2018-12-28T07:06:42Z</time>
      </trkpt>
      <trkpt lat="36.402080" lon="-116.774060">
        <ele>333.308</ele>
        <time>2018-12-28T07:07:02Z</time>
      </trkpt>
      <trkpt lat="36.401910" lon="-116.773690">
        <ele>335.385</ele>
        <time>2018-12-28T07:07:22Z</time>
      </trkpt>
      <trkpt lat="36.401720" lon="-116.773330">
        <ele>337.213</ele>
        <time>2018-12-28T07:07:42Z</time>
      </trkpt>
      <trkpt lat="36.401510" lon="-116.773010">
        <ele>339.158</ele>
        <time>2018-12-28T07:08:02Z</time>
      </trkpt>
      <trkpt lat="36.401330" lon="-116.772730">
        <ele>340.789</ele>
        <time>2018-12-28T07:08:22Z</time>
      </trkpt>
      <trkpt lat="36.401130" lon="-116.772470">
        <ele>343.273</ele>
        <time>2018-12-28T07:08:42Z</time>
      </trkpt>
      <trkpt lat="36.400890" lon="-116.772210">
        <ele>345.712</ele>
        <time>2018-12-28T07:09:02Z</time>
      </trkpt>
      <trkpt lat="36.400650" lon="-116.771960">
        <ele>347.751</ele>
        <time>2018-12-28T07:09:22Z</time>
      </trkpt>
      <trkpt lat="36.400550" lon="-116.771870">
        <ele>348.581</ele>
        <time>2018-12-28T07:09:42Z</time>
      </trkpt>
      <trkpt lat="36.400430" lon="-116.771760">
        <ele>349.437</ele>
        <time>2018-12-28T07:10:02Z</time>
      </trkpt>
      <trkpt lat="36.400200" lon="-116.771600">
        <ele>350.949</ele>
        <time>2018-12-28T07:10:22Z</time>
      </trkpt>
      <trkpt lat="36.399980" lon="-116.771460">
        <ele>351.813</ele>
        <time>2018-12-28T07:10:42Z</time>
      </trkpt>
      <trkpt lat="36.399880" lon="-116.771400">
        <ele>352.208</ele>
        <time>2018-12-28T07:11:02Z</time>
      </trkpt>
      <trkpt lat="36.399770" lon="-116.771350">
        <ele>352.796</ele>
        <time>2018-12-28T07:11:22Z</time>
      </trkpt>
      <trkpt lat="36.399590" lon="-116.771260">
        <ele>353.264</ele>
        <time>2018-12-28T07:11:42Z</time>
      </trkpt>
      <trkpt lat="36.399360" lon="-116.771140">
        <ele>353.099</ele>
        <time>2018-12-28T07:12:02Z</time>
      </trkpt>
      <trkpt lat="36.398980" lon="-116.770960">
        <ele>352.960</ele>
        <time>2018-12-28T07:12:22Z</time>
      </trkpt>
      <trkpt lat="36.398860" lon="-116.770890">
        <ele>353.174</ele>
        <time>2018-12-28T07:12:42Z</time>
      </trkpt>
      <trkpt lat="36.398760" lon="-116.770840">
        <ele>353.343</ele>
        <time>2018-12-28T07:13:02Z</time>
      </trkpt>
      <trkpt lat="36.398700" lon="-116.770800">
        <ele>353.522</ele>
        <time>2018-12-28T07:13:22Z</time>
      </trkpt>
      <trkpt lat="36.398560" lon="-116.770710">
        <ele>354.012</ele>
        <time>2018-12-28T07:13:42Z</time>
      </trkpt>
      <trkpt lat="36.398420" lon="-116.770620">
        <ele>354.948</ele>
        <time>2018-12-28T07:14:02Z</time>
      </trkpt>
      <trkpt lat="36.398320" lon="-116.770540">
        <ele>355.961</ele>
        <time>2018-12-28T07:14:22Z</time>
      </trkpt>
      <trkpt lat="36.398200" lon="-116.770450">
        <ele>357.017</ele>
        <time>2018-12-28T07:14:42Z</time>
      </trkpt>
      <trkpt lat="36.398090" lon="-116.770360">
        <ele>357.908</ele>
        <time>2018-12-28T07:15:02Z</time>
      </trkpt>
      <trkpt lat="36.397960" lon="-116.770230">
        <ele>358.867</ele>
        <time>2018-12-28T07:15:22Z</time>
      </trkpt>
      <trkpt lat="36.397880" lon="-116.770150">
        <ele>359.425</ele>
        <time>2018-12-28T07:15:42Z</time>
      </trkpt>
      <trkpt lat="36.397700" lon="-116.769950">
        <ele>360.910</ele>
        <time>2018-12-28T07:16:02Z</time>
      </trkpt>
      <trkpt lat="36.397630" lon="-116.769870">
        <ele>361.631</ele>
        <time>2018-12-28T07:16:22Z</time>
      </trkpt>
      <trkpt lat="36.397560" lon="-116.769780">
        <ele>362.365</ele>
        <time>2018-12-28T07:16:42Z</time>
      </trkpt>
      <trkpt lat="36.397470" lon="-116.769650">
        <ele>363.094</ele>
        <time>2018-12-28T07:17:02Z</time>
      </trkpt>
      <trkpt lat="36.397420" lon="-116.769590">
        <ele>363.383</ele>
        <time>2018-12-28T07:17:22Z</time>
      </trkpt>
      <trkpt lat="36.397390" lon="-116.769530">
        <ele>363.463</ele>
        <time>2018-12-28T07:17:42Z</time>
      </trkpt>
      <trkpt lat="36.397360" lon="-116.769480">
        <ele>363.471</ele>
        <time>2018-12-28T07:18:02Z</time>
      </trkpt>
      <trkpt lat="36.397320" lon="-116.769420">
        <ele>363.441</ele>
        <time>2018-12-28T07:18:22Z</time>
      </trkpt>
      <trkpt lat="36.397140" lon="-116.769080">
        <ele>363.615</ele>
        <time>2018-12-28T07:18:42Z</time>
      </trkpt>
      <trkpt lat="36.397090" lon="-116.768970">
        <ele>363.608</ele>
        <time>2018-12-28T07:19:02Z</time>
      </trkpt>
      <trkpt lat="36.397010" lon="-116.768770">
        <ele>363.640</ele>
        <time>2018-12-28T07:19:22Z</time>
      </trkpt>
      <trkpt lat="36.396950" lon="-116.768640">
        <ele>363.858</ele>
        <time>2018-12-28T07:19:42Z</time>
      </trkpt>
      <trkpt lat="36.396540" lon="-116.767560">
        <ele>367.243</ele>
        <time>2018-12-28T07:20:02Z</time>
      </trkpt>
      <trkpt lat="36.396450" lon="-116.767330">
        <ele>367.674</ele>
        <time>2018-12-28T07:20:22Z</time>
      </trkpt>
      <trkpt lat="36.396310" lon="-116.767030">
        <ele>367.898</ele>
        <time>2018-12-28T07:20:42Z</time>
      </trkpt>
      <trkpt lat="36.396060" lon="-116.766550">
        <ele>369.277</ele>
        <time>2018-12-28T07:21:02Z</time>
      </trkpt>
      <trkpt lat="36.395980" lon="-116.766390">
        <ele>370.096</ele>
        <time>2018-12-28T07:21:22Z</time>
      </trkpt>
      <trkpt lat="36.395850" lon="-116.766200">
        <ele>371.756</ele>
        <time>2018-12-28T07:21:42Z</time>
      </trkpt>
      <trkpt lat="36.395760" lon="-116.766060">
        <ele>373.155</ele>
        <time>2018-12-28T07:22:02Z</time>
      </trkpt>
      <trkpt lat="36.393540" lon="-116.763060">
        <ele>387.707</ele>
        <time>2018-12-28T07:22:22Z</time>
      </trkpt>
      <trkpt lat="36.393200" lon="-116.762620">
        <ele>388.717</ele>
        <time>2018-12-28T07:22:42Z</time>
      </trkpt>
      <trkpt lat="36.392960" lon="-116.762340">
        <ele>389.808</ele>
        <time>2018-12-28T07:23:02Z</time>
      </trkpt>
      <trkpt lat="36.392800" lon="-116.762180">
        <ele>390.598</ele>
        <time>2018-12-28T07:23:22Z</time>
      </trkpt>
      <trkpt lat="36.392620" lon="-116.762020">
        <ele>391.446</ele>
        <time>2018-12-28T07:23:42Z</time>
      </trkpt>
      <trkpt lat="36.392340" lon="-116.761770">
        <ele>392.421</ele>
        <time>2018-12-28T07:24:02Z</time>
      </trkpt>
      <trkpt lat="36.392170" lon="-116.761640">
        <ele>393.872</ele>
        <time>2018-12-28T07:24:22Z</time>
      </trkpt>
      <trkpt lat="36.391550" lon="-116.761250">
        <ele>399.896</ele>
        <time>2018-12-28T07:24:42Z</time>
      </trkpt>
      <trkpt lat="36.391150" lon="-116.760990">
        <ele>401.035</ele>
        <time>2018-12-28T07:25:02Z</time>
      </trkpt>
      <trkpt lat="36.390670" lon="-116.760630">
        <ele>401.454</ele>
        <time>2018-12-28T07:25:22Z</time>
      </trkpt>
      <trkpt lat="36.390320" lon="-116.760350">
        <ele>401.544</ele>
        <time>2018-12-28T07:25:42Z</time>
      </trkpt>
      <trkpt lat="36.390030" lon="-116.760080">
        <ele>402.118</ele>
        <time>2018-12-28T07:26:02Z</time>
      </trkpt>
      <trkpt lat="36.389850" lon="-116.759890">
        <ele>403.098</ele>
        <time>2018-12-28T07:26:22Z</time>
      </trkpt>
      <trkpt lat="36.389640" lon="-116.759670">
        <ele>404.517</ele>
        <time>2018-12-28T07:26:42Z</time>
      </trkpt>
      <trkpt lat="36.389380" lon="-116.759320">
        <ele>406.708</ele>
        <time>2018-12-28T07:27:02Z</time>
      </trkpt>
      <trkpt lat="36.389140" lon="-116.758990">
        <ele>409.854</ele>
        <time>2018-12-28T07:27:22Z</time>
      </trkpt>
      <trkpt lat="36.388580" lon="-116.758090">
        <ele>414.282</ele>
        <time>2018-12-28T07:27:42Z</time>
      </trkpt>
      <trkpt lat="36.388370" lon="-116.757760">
        <ele>414.577</ele>
        <time>2018-12-28T07:28:02Z</time>
      </trkpt>
      <trkpt lat="36.388150" lon="-116.757360">
        <ele>415.198</ele>
        <time>2018-12-28T07:28:22Z</time>
      </trkpt>
      <trkpt lat="36.387930" lon="-116.756860">
        <ele>415.252</ele>
        <time>2018-12-28T07:28:42Z</time>
      </trkpt>
      <trkpt lat="36.387810" lon="-116.756520">
        <ele>415.521</ele>
        <time>2018-12-28T07:29:02Z</time>
      </trkpt>
      <trkpt lat="36.387670" lon="-116.756080">
        <ele>415.390</ele>
        <time>2018-12-28T07:29:22Z</time>
      </trkpt>
      <trkpt lat="36.387580" lon="-116.755740">
        <ele>415.220</ele>
        <time>2018-12-28T07:29:42Z</time>
      </trkpt>
      <trkpt lat="36.387490" lon="-116.755360">
        <ele>416.968</ele>
        <time>2018-12-28T07:30:02Z</time>
      </trkpt>
      <trkpt lat="36.387420" lon="-116.755070">
        <ele>420.142</ele>
        <time>2018-12-28T07:30:22Z</time>
      </trkpt>
      <trkpt lat="36.387330" lon="-116.754620">
        <ele>424.626</ele>
        <time>2018-12-28T07:30:42Z</time>
      </trkpt>
      <trkpt lat="36.387180" lon="-116.753900">
        <ele>426.708</ele>
        <time>2018-12-28T07:31:02Z</time>
      </trkpt>
      <trkpt lat="36.387010" lon="-116.752930">
        <ele>426.589</ele>
        <time>2018-12-28T07:31:22Z</time>
      </trkpt>
      <trkpt lat="36.386640" lon="-116.750940">
        <ele>435.217</ele>
        <time>2018-12-28T07:31:42Z</time>
      </trkpt>
      <trkpt lat="36.386350" lon="-116.749360">
        <ele>437.122</ele>
        <time>2018-12-28T07:32:02Z</time>
      </trkpt>
      <trkpt lat="36.386050" lon="-116.747690">
        <ele>440.233</ele>
        <time>2018-12-28T07:32:22Z</time>
      </trkpt>
      <trkpt lat="36.385740" lon="-116.746000">
        <ele>447.977</ele>
        <time>2018-12-28T07:32:42Z</time>
      </trkpt>
      <trkpt lat="36.385620" lon="-116.745410">
        <ele>449.556</ele>
        <time>2018-12-28T07:33:02Z</time>
      </trkpt>
      <trkpt lat="36.385480" lon="-116.744880">
        <ele>451.595</ele>
        <time>2018-12-28T07:33:22Z</time>
      </trkpt>
      <trkpt lat="36.385360" lon="-116.744580">
        <ele>452.885</ele>
        <time>2018-12-28T07:33:42Z</time>
      </trkpt>
      <trkpt lat="36.385270" lon="-116.744370">
        <ele>453.468</ele>
        <time>2018-12-28T07:34:02Z</time>
      </trkpt>
      <trkpt lat="36.385050" lon="-116.743930">
        <ele>455.342</ele>
        <time>2018-12-28T07:34:22Z</time>
      </trkpt>
      <trkpt lat="36.384920" lon="-116.743720">
        <ele>456.226</ele>
        <time>2018-12-28T07:34:42Z</time>
      </trkpt>
      <trkpt lat="36.384760" lon="-116.743480">
        <ele>457.308</ele>
        <time>2018-12-28T07:35:02Z</time>
      </trkpt>
      <trkpt lat="36.384490" lon="-116.743150">
        <ele>459.229</ele>
        <time>2018-12-28T07:35:22Z</time>
      </trkpt>
      <trkpt lat="36.384290" lon="-116.742940">
        <ele>460.637</ele>
        <time>2018-12-28T07:35:42Z</time>
      </trkpt>
      <trkpt lat="36.384090" lon="-116.742740">
        <ele>462.172</ele>
        <time>2018-12-28T07:36:02Z</time>
      </trkpt>
      <trkpt lat="36.383670" lon="-116.742360">
        <ele>465.163</ele>
        <time>2018-12-28T07:36:22Z</time>
      </trkpt>
      <trkpt lat="36.383290" lon="-116.742010">
        <ele>468.057</ele>
        <time>2018-12-28T07:36:42Z</time>
      </trkpt>
      <trkpt lat="36.383120" lon="-116.741860">
        <ele>469.456</ele>
        <time>2018-12-28T07:37:02Z</time>
      </trkpt>
      <trkpt lat="36.382840" lon="-116.741610">
        <ele>471.885</ele>
        <time>2018-12-28T07:37:22Z</time>
      </trkpt>
      <trkpt lat="36.382250" lon="-116.741070">
        <ele>476.335</ele>
        <time>2018-12-28T07:37:42Z</time>
      </trkpt>
      <trkpt lat="36.381820" lon="-116.740680">
        <ele>478.627</ele>
        <time>2018-12-28T07:38:02Z</time>
      </trkpt>
      <trkpt lat="36.381350" lon="-116.740250">
        <ele>481.268</ele>
        <time>2018-12-28T07:38:22Z</time>
      </trkpt>
      <trkpt lat="36.380740" lon="-116.739680">
        <ele>486.214</ele>
        <time>2018-12-28T07:38:42Z</time>
      </trkpt>
      <trkpt lat="36.380300" lon="-116.739280">
        <ele>490.108</ele>
        <time>2018-12-28T07:39:02Z</time>
      </trkpt>
      <trkpt lat="36.379460" lon="-116.738530">
        <ele>496.825</ele>
        <time>2018-12-28T07:39:22Z</time>
      </trkpt>
      <trkpt lat="36.378930" lon="-116.738030">
        <ele>500.573</ele>
        <time>2018-12-28T07:39:42Z</time>
      </trkpt>
      <trkpt lat="36.378690" lon="-116.737810">
        <ele>501.898</ele>
        <time>2018-12-28T07:40:02Z</time>
      </trkpt>
      <trkpt lat="36.378080" lon="-116.737240">
        <ele>503.939</ele>
        <time>2018-12-28T07:40:22Z</time>
      </trkpt>
      <trkpt lat="36.376880" lon="-116.736100">
        <ele>511.533</ele>
        <time>2018-12-28T07:40:42Z</time>
      </trkpt>
      <trkpt lat="36.376370" lon="-116.735570">
        <ele>514.792</ele>
        <time>2018-12-28T07:41:02Z</time>
      </trkpt>
      <trkpt lat="36.376060" lon="-116.735220">
        <ele>514.311</ele>
        <time>2018-12-28T07:41:22Z</time>
      </trkpt>
      <trkpt lat="36.375650" lon="-116.734800">
        <ele>514.071</ele>
        <time>2018-12-28T07:41:42Z</time>
      </trkpt>
      <trkpt lat="36.374990" lon="-116.734160">
        <ele>514.123</ele>
        <time>2018-12-28T07:42:02Z</time>
      </trkpt>
      <trkpt lat="36.374860" lon="-116.734060">
        <ele>514.483</ele>
        <time>2018-12-28T07:42:22Z</time>
      </trkpt>
      <trkpt lat="36.374710" lon="-116.733930">
        <ele>515.011</ele>
        <time>2018-12-28T07:42:42Z</time>
      </trkpt>
      <trkpt lat="36.374330" lon="-116.733620">
        <ele>516.408</ele>
        <time>2018-12-28T07:43:02Z</time>
      </trkpt>
      <trkpt lat="36.374090" lon="-116.733450">
        <ele>517.225</ele>
        <time>2018-12-28T07:43:22Z</time>
      </trkpt>
      <trkpt lat="36.372970" lon="-116.732680">
        <ele>523.473</ele>
        <time>2018-12-28T07:43:42Z</time>
      </trkpt>
      <trkpt lat="36.372850" lon="-116.732580">
        <ele>524.488</ele>
        <time>2018-12-28T07:44:02Z</time>
      </trkpt>
      <trkpt lat="36.372430" lon="-116.732320">
        <ele>526.449</ele>
        <time>2018-12-28T07:44:22Z</time>
      </trkpt>
      <trkpt lat="36.371860" lon="-116.731920">
        <ele>528.153</ele>
        <time>2018-12-28T07:44:42Z</time>
      </trkpt>
      <trkpt lat="36.371610" lon="-116.731740">
        <ele>528.932</ele>
        <time>2018-12-28T07:45:02Z</time>
      </trkpt>
      <trkpt lat="36.371150" lon="-116.731400">
        <ele>531.461</ele>
        <time>2018-12-28T07:45:22Z</time>
      </trkpt>
      <trkpt lat="36.370810" lon="-116.731130">
        <ele>532.611</ele>
        <time>2018-12-28T07:45:42Z</time>
      </trkpt>
      <trkpt lat="36.370450" lon="-116.730830">
        <ele>533.553</ele>
        <time>2018-12-28T07:46:02Z</time>
      </trkpt>
      <trkpt lat="36.369810" lon="-116.730240">
        <ele>536.904</ele>
        <time>2018-12-28T07:46:22Z</time>
      </trkpt>
      <trkpt lat="36.369700" lon="-116.730140">
        <ele>537.714</ele>
        <time>2018-12-28T07:46:42Z</time>
      </trkpt>
      <trkpt lat="36.368950" lon="-116.729330">
        <ele>539.908</ele>
        <time>2018-12-28T07:47:02Z</time>
      </trkpt>
      <trkpt lat="36.368310" lon="-116.728650">
        <ele>545.668</ele>
        <time>2018-12-28T07:47:22Z</time>
      </trkpt>
      <trkpt lat="36.367390" lon="-116.727670">
        <ele>549.476</ele>
        <time>2018-12-28T07:47:42Z</time>
      </trkpt>
      <trkpt lat="36.367120" lon="-116.727380">
        <ele>551.511</ele>
        <time>2018-12-28T07:48:02Z</time>
      </trkpt>
      <trkpt lat="36.366930" lon="-116.727150">
        <ele>553.762</ele>
        <time>2018-12-28T07:48:22Z</time>
      </trkpt>
      <trkpt lat="36.366650" lon="-116.726780">
        <ele>555.736</ele>
        <time>2018-12-28T07:48:42Z</time>
      </trkpt>
      <trkpt lat="36.366400" lon="-116.726390">
        <ele>556.755</ele>
        <time>2018-12-28T07:49:02Z</time>
      </trkpt>
      <trkpt lat="36.365980" lon="-116.725690">
        <ele>557.774</ele>
        <time>2018-12-28T07:49:22Z</time>
      </trkpt>
      <trkpt lat="36.365810" lon="-116.725400">
        <ele>558.264</ele>
        <time>2018-12-28T07:49:42Z</time>
      </trkpt>
      <trkpt lat="36.365610" lon="-116.724990">
        <ele>558.832</ele>
        <time>2018-12-28T07:50:02Z</time>
      </trkpt>
      <trkpt lat="36.365490" lon="-116.724700">
        <ele>559.292</ele>
        <time>2018-12-28T07:50:22Z</time>
      </trkpt>
      <trkpt lat="36.365420" lon="-116.724480">
        <ele>559.511</ele>
        <time>2018-12-28T07:50:42Z</time>
      </trkpt>
      <trkpt lat="36.363990" lon="-116.719470">
        <ele>577.608</ele>
        <time>2018-12-28T07:51:02Z</time>
      </trkpt>
      <trkpt lat="36.363720" lon="-116.718590">
        <ele>585.576</ele>
        <time>2018-12-28T07:51:22Z</time>
      </trkpt>
      <trkpt lat="36.362910" lon="-116.715700">
        <ele>591.774</ele>
        <time>2018-12-28T07:51:42Z</time>
      </trkpt>
      <trkpt lat="36.362640" lon="-116.714730">
        <ele>594.739</ele>
        <time>2018-12-28T07:52:02Z</time>
      </trkpt>
      <trkpt lat="36.362580" lon="-116.714460">
        <ele>595.880</ele>
        <time>2018-12-28T07:52:22Z</time>
      </trkpt>
      <trkpt lat="36.362540" lon="-116.714250">
        <ele>596.664</ele>
        <time>2018-12-28T07:52:42Z</time>
      </trkpt>
      <trkpt lat="36.362500" lon="-116.714060">
        <ele>597.283</ele>
        <time>2018-12-28T07:53:02Z</time>
      </trkpt>
      <trkpt lat="36.362470" lon="-116.713890">
        <ele>597.722</ele>
        <time>2018-12-28T07:53:22Z</time>
      </trkpt>
      <trkpt lat="36.362440" lon="-116.713660">
        <ele>598.442</ele>
        <time>2018-12-28T07:53:42Z</time>
      </trkpt>
      <trkpt lat="36.362420" lon="-116.713440">
        <ele>598.927</ele>
        <time>2018-12-28T07:54:02Z</time>
      </trkpt>
      <trkpt lat="36.362390" lon="-116.713190">
        <ele>599.568</ele>
        <time>2018-12-28T07:54:22Z</time>
      </trkpt>
      <trkpt lat="36.362380" lon="-116.713020">
        <ele>599.914</ele>
        <time>2018-12-28T07:54:42Z</time>
      </trkpt>
      <trkpt lat="36.362380" lon="-116.712890">
        <ele>600.208</ele>
        <time>2018-12-28T07:55:02Z</time>
      </trkpt>
      <trkpt lat="36.362370" lon="-116.712760">
        <ele>600.625</ele>
        <time>2018-12-28T07:55:22Z</time>
      </trkpt>
      <trkpt lat="36.362380" lon="-116.712430">
        <ele>601.583</ele>
        <time>2018-12-28T07:55:42Z</time>
      </trkpt>
      <trkpt lat="36.362380" lon="-116.712060">
        <ele>602.548</ele>
        <time>2018-12-28T07:56:02Z</time>
      </trkpt>
      <trkpt lat="36.362390" lon="-116.711760">
        <ele>603.439</ele>
        <time>2018-12-28T07:56:22Z</time>
      </trkpt>
      <trkpt lat="36.362400" lon="-116.711560">
        <ele>603.933</ele>
        <time>2018-12-28T07:56:42Z</time>
      </trkpt>
      <trkpt lat="36.362420" lon="-116.711360">
        <ele>604.642</ele>
        <time>2018-12-28T07:57:02Z</time>
      </trkpt>
      <trkpt lat="36.362440" lon="-116.711230">
        <ele>605.011</ele>
        <time>2018-12-28T07:57:22Z</time>
      </trkpt>
      <trkpt lat="36.362460" lon="-116.711100">
        <ele>605.421</ele>
        <time>2018-12-28T07:57:42Z</time>
      </trkpt>
      <trkpt lat="36.362480" lon="-116.711000">
        <ele>605.716</ele>
        <time>2018-12-28T07:58:02Z</time>
      </trkpt>
      <trkpt lat="36.362510" lon="-116.710870">
        <ele>606.176</ele>
        <time>2018-12-28T07:58:22Z</time>
      </trkpt>
      <trkpt lat="36.362570" lon="-116.710630">
        <ele>606.813</ele>
        <time>2018-12-28T07:58:42Z</time>
      </trkpt>
      <trkpt lat="36.362680" lon="-116.710270">
        <ele>607.908</ele>
        <time>2018-12-28T07:59:02Z</time>
      </trkpt>
      <trkpt lat="36.362870" lon="-116.709720">
        <ele>609.674</ele>
        <time>2018-12-28T07:59:22Z</time>
      </trkpt>
      <trkpt lat="36.363070" lon="-116.709210">
        <ele>611.942</ele>
        <time>2018-12-28T07:59:42Z</time>
      </trkpt>
      <trkpt lat="36.363340" lon="-116.708610">
        <ele>615.837</ele>
        <time>2018-12-28T08:00:02Z</time>
      </trkpt>
      <trkpt lat="36.363530" lon="-116.708190">
        <ele>618.788</ele>
        <time>2018-12-28T08:00:22Z</time>
      </trkpt>
      <trkpt lat="36.363890" lon="-116.707400">
        <ele>623.132</ele>
        <time>2018-12-28T08:00:42Z</time>
      </trkpt>
      <trkpt lat="36.364060" lon="-116.707010">
        <ele>625.521</ele>
        <time>2018-12-28T08:01:02Z</time>
      </trkpt>
      <trkpt lat="36.364130" lon="-116.706850">
        <ele>626.670</ele>
        <time>2018-12-28T08:01:22Z</time>
      </trkpt>
      <trkpt lat="36.364280" lon="-116.706550">
        <ele>628.430</ele>
        <time>2018-12-28T08:01:42Z</time>
      </trkpt>
      <trkpt lat="36.364410" lon="-116.706300">
        <ele>630.588</ele>
        <time>2018-12-28T08:02:02Z</time>
      </trkpt>
      <trkpt lat="36.364550" lon="-116.706080">
        <ele>632.624</ele>
        <time>2018-12-28T08:02:22Z</time>
      </trkpt>
      <trkpt lat="36.364810" lon="-116.705700">
        <ele>635.226</ele>
        <time>2018-12-28T08:02:42Z</time>
      </trkpt>
      <trkpt lat="36.365010" lon="-116.705420">
        <ele>636.208</ele>
        <time>2018-12-28T08:03:02Z</time>
      </trkpt>
      <trkpt lat="36.365360" lon="-116.704920">
        <ele>638.171</ele>
        <time>2018-12-28T08:03:22Z</time>
      </trkpt>
      <trkpt lat="36.365650" lon="-116.704520">
        <ele>639.789</ele>
        <time>2018-12-28T08:03:42Z</time>
      </trkpt>
      <trkpt lat="36.365800" lon="-116.704300">
        <ele>640.824</ele>
        <time>2018-12-28T08:04:02Z</time>
      </trkpt>
      <trkpt lat="36.365970" lon="-116.704060">
        <ele>642.535</ele>
        <time>2018-12-28T08:04:22Z</time>
      </trkpt>
      <trkpt lat="36.366270" lon="-116.703630">
        <ele>645.449</ele>
        <time>2018-12-28T08:04:42Z</time>
      </trkpt>
      <trkpt lat="36.366280" lon="-116.703620">
        <ele>645.538</ele>
        <time>2018-12-28T08:05:02Z</time>
      </trkpt>
      <trkpt lat="36.366480" lon="-116.703330">
        <ele>646.897</ele>
        <time>2018-12-28T08:05:22Z</time>
      </trkpt>
      <trkpt lat="36.366740" lon="-116.702960">
        <ele>647.957</ele>
        <time>2018-12-28T08:05:42Z</time>
      </trkpt>
      <trkpt lat="36.367940" lon="-116.701240">
        <ele>653.978</ele>
        <time>2018-12-28T08:06:02Z</time>
      </trkpt>
      <trkpt lat="36.368200" lon="-116.700870">
        <ele>656.833</ele>
        <time>2018-12-28T08:06:22Z</time>
      </trkpt>
      <trkpt lat="36.368430" lon="-116.700560">
        <ele>658.826</ele>
        <time>2018-12-28T08:06:42Z</time>
      </trkpt>
      <trkpt lat="36.368820" lon="-116.700060">
        <ele>659.908</ele>
        <time>2018-12-28T08:07:02Z</time>
      </trkpt>
      <trkpt lat="36.369690" lon="-116.698950">
        <ele>661.950</ele>
        <time>2018-12-28T08:07:22Z</time>
      </trkpt>
      <trkpt lat="36.370020" lon="-116.698540">
        <ele>663.648</ele>
        <time>2018-12-28T08:07:42Z</time>
      </trkpt>
      <trkpt lat="36.370250" lon="-116.698250">
        <ele>665.163</ele>
        <time>2018-12-28T08:08:02Z</time>
      </trkpt>
      <trkpt lat="36.370720" lon="-116.697690">
        <ele>669.064</ele>
        <time>2018-12-28T08:08:22Z</time>
      </trkpt>
      <trkpt lat="36.371180" lon="-116.697160">
        <ele>672.078</ele>
        <time>2018-12-28T08:08:42Z</time>
      </trkpt>
      <trkpt lat="36.371270" lon="-116.697060">
        <ele>672.477</ele>
        <time>2018-12-28T08:09:02Z</time>
      </trkpt>
      <trkpt lat="36.371740" lon="-116.696600">
        <ele>673.196</ele>
        <time>2018-12-28T08:09:22Z</time>
      </trkpt>
      <trkpt lat="36.371840" lon="-116.696510">
        <ele>673.426</ele>
        <time>2018-12-28T08:09:42Z</time>
      </trkpt>
      <trkpt lat="36.371920" lon="-116.696430">
        <ele>673.698</ele>
        <time>2018-12-28T08:10:02Z</time>
      </trkpt>
      <trkpt lat="36.372740" lon="-116.695730">
        <ele>681.115</ele>
        <time>2018-12-28T08:10:22Z</time>
      </trkpt>
      <trkpt lat="36.373310" lon="-116.695240">
        <ele>684.026</ele>
        <time>2018-12-28T08:10:42Z</time>
      </trkpt>
      <trkpt lat="36.373920" lon="-116.694700">
        <ele>685.208</ele>
        <time>2018-12-28T08:11:02Z</time>
      </trkpt>
      <trkpt lat="36.375280" lon="-116.693540">
        <ele>693.862</ele>
        <time>2018-12-28T08:11:22Z</time>
      </trkpt>
      <trkpt lat="36.375440" lon="-116.693380">
        <ele>695.330</ele>
        <time>2018-12-28T08:11:42Z</time>
      </trkpt>
      <trkpt lat="36.375640" lon="-116.693170">
        <ele>695.985</ele>
        <time>2018-12-28T08:12:02Z</time>
      </trkpt>
      <trkpt lat="36.375810" lon="-116.692980">
        <ele>697.096</ele>
        <time>2018-12-28T08:12:22Z</time>
      </trkpt>
      <trkpt lat="36.375990" lon="-116.692760">
        <ele>698.240</ele>
        <time>2018-12-28T08:12:42Z</time>
      </trkpt>
      <trkpt lat="36.376160" lon="-116.692540">
        <ele>698.939</ele>
        <time>2018-12-28T08:13:02Z</time>
      </trkpt>
      <trkpt lat="36.376230" lon="-116.692420">
        <ele>699.398</ele>
        <time>2018-12-28T08:13:22Z</time>
      </trkpt>
      <trkpt lat="36.376300" lon="-116.692300">
        <ele>699.598</ele>
        <time>2018-12-28T08:13:42Z</time>
      </trkpt>
      <trkpt lat="36.376410" lon="-116.692080">
        <ele>699.844</ele>
        <time>2018-12-28T08:14:02Z</time>
      </trkpt>
      <trkpt lat="36.376460" lon="-116.691940">
        <ele>699.805</ele>
        <time>2018-12-28T08:14:22Z</time>
      </trkpt>
      <trkpt lat="36.376490" lon="-116.691830">
        <ele>699.915</ele>
        <time>2018-12-28T08:14:42Z</time>
      </trkpt>
      <trkpt lat="36.376510" lon="-116.691740">
        <ele>699.908</ele>
        <time>2018-12-28T08:15:02Z</time>
      </trkpt>
      <trkpt lat="36.376530" lon="-116.691620">
        <ele>700.167</ele>
        <time>2018-12-28T08:15:22Z</time>
      </trkpt>
      <trkpt lat="36.376530" lon="-116.691500">
        <ele>700.355</ele>
        <time>2018-12-28T08:15:42Z</time>
      </trkpt>
      <trkpt lat="36.376540" lon="-116.691420">
        <ele>700.550</ele>
        <time>2018-12-28T08:16:02Z</time>
      </trkpt>
      <trkpt lat="36.376540" lon="-116.691320">
        <ele>700.751</ele>
        <time>2018-12-28T08:16:22Z</time>
      </trkpt>
      <trkpt lat="36.376530" lon="-116.691220">
        <ele>701.215</ele>
        <time>2018-12-28T08:16:42Z</time>
      </trkpt>
      <trkpt lat="36.376520" lon="-116.691110">
        <ele>702.584</ele>
        <time>2018-12-28T08:17:02Z</time>
      </trkpt>
      <trkpt lat="36.376490" lon="-116.690970">
        <ele>704.823</ele>
        <time>2018-12-28T08:17:22Z</time>
      </trkpt>
      <trkpt lat="36.376450" lon="-116.690820">
        <ele>706.723</ele>
        <time>2018-12-28T08:17:42Z</time>
      </trkpt>
      <trkpt lat="36.376360" lon="-116.690480">
        <ele>709.283</ele>
        <time>2018-12-28T08:18:02Z</time>
      </trkpt>
      <trkpt lat="36.376300" lon="-116.690220">
        <ele>709.725</ele>
        <time>2018-12-28T08:18:22Z</time>
      </trkpt>
      <trkpt lat="36.376210" lon="-116.689940">
        <ele>710.317</ele>
        <time>2018-12-28T08:18:42Z</time>
      </trkpt>
      <trkpt lat="36.376040" lon="-116.689460">
        <ele>711.308</ele>
        <time>2018-12-28T08:19:02Z</time>
      </trkpt>
      <trkpt lat="36.375940" lon="-116.689170">
        <ele>711.771</ele>
        <time>2018-12-28T08:19:22Z</time>
      </trkpt>
      <trkpt lat="36.375860" lon="-116.688890">
        <ele>712.099</ele>
        <time>2018-12-28T08:19:42Z</time>
      </trkpt>
      <trkpt lat="36.375780" lon="-116.688580">
        <ele>712.764</ele>
        <time>2018-12-28T08:20:02Z</time>
      </trkpt>
      <trkpt lat="36.375720" lon="-116.688150">
        <ele>713.065</ele>
        <time>2018-12-28T08:20:22Z</time>
      </trkpt>
      <trkpt lat="36.375650" lon="-116.687700">
        <ele>712.049</ele>
        <time>2018-12-28T08:20:42Z</time>
      </trkpt>
      <trkpt lat="36.375580" lon="-116.687160">
        <ele>709.978</ele>
        <time>2018-12-28T08:21:02Z</time>
      </trkpt>
      <trkpt lat="36.375520" lon="-116.686640">
        <ele>720.577</ele>
        <time>2018-12-28T08:21:22Z</time>
      </trkpt>
      <trkpt lat="36.375470" lon="-116.686040">
        <ele>725.327</ele>
        <time>2018-12-28T08:21:42Z</time>
      </trkpt>
      <trkpt lat="36.375390" lon="-116.685180">
        <ele>726.052</ele>
        <time>2018-12-28T08:22:02Z</time>
      </trkpt>
      <trkpt lat="36.375290" lon="-116.684050">
        <ele>725.353</ele>
        <time>2018-12-28T08:22:22Z</time>
      </trkpt>
      <trkpt lat="36.375180" lon="-116.682850">
        <ele>727.708</ele>
        <time>2018-12-28T08:22:42Z</time>
      </trkpt>
      <trkpt lat="36.375150" lon="-116.682550">
        <ele>729.208</ele>
        <time>2018-12-28T08:23:02Z</time>
      </trkpt>
      <trkpt lat="36.375110" lon="-116.681980">
        <ele>731.418</ele>
        <time>2018-12-28T08:23:22Z</time>
      </trkpt>
      <trkpt lat="36.375060" lon="-116.680190">
        <ele>737.626</ele>
        <time>2018-12-28T08:23:42Z</time>
      </trkpt>
      <trkpt lat="36.375060" lon="-116.680050">
        <ele>737.921</ele>
        <time>2018-12-28T08:24:02Z</time>
      </trkpt>
      <trkpt lat="36.375050" lon="-116.679930">
        <ele>738.362</ele>
        <time>2018-12-28T08:24:22Z</time>
      </trkpt>
      <trkpt lat="36.375030" lon="-116.679780">
        <ele>738.796</ele>
        <time>2018-12-28T08:24:42Z</time>
      </trkpt>
      <trkpt lat="36.375010" lon="-116.679540">
        <ele>739.495</ele>
        <time>2018-12-28T08:25:02Z</time>
      </trkpt>
      <trkpt lat="36.374940" lon="-116.679130">
        <ele>741.194</ele>
        <time>2018-12-28T08:25:22Z</time>
      </trkpt>
      <trkpt lat="36.374450" lon="-116.675600">
        <ele>755.454</ele>
        <time>2018-12-28T08:25:42Z</time>
      </trkpt>
      <trkpt lat="36.374200" lon="-116.673900">
        <ele>761.891</ele>
        <time>2018-12-28T08:26:02Z</time>
      </trkpt>
      <trkpt lat="36.374160" lon="-116.673660">
        <ele>761.481</ele>
        <time>2018-12-28T08:26:22Z</time>
      </trkpt>
      <trkpt lat="36.374010" lon="-116.673020">
        <ele>760.419</ele>
        <time>2018-12-28T08:26:42Z</time>
      </trkpt>
      <trkpt lat="36.373000" lon="-116.668650">
        <ele>774.208</ele>
        <time>2018-12-28T08:27:02Z</time>
      </trkpt>
      <trkpt lat="36.372380" lon="-116.666030">
        <ele>787.152</ele>
        <time>2018-12-28T08:27:22Z</time>
      </trkpt>
      <trkpt lat="36.372180" lon="-116.665200">
        <ele>791.510</ele>
        <time>2018-12-28T08:27:42Z</time>
      </trkpt>
      <trkpt lat="36.372120" lon="-116.664970">
        <ele>792.085</ele>
        <time>2018-12-28T08:28:02Z</time>
      </trkpt>
      <trkpt lat="36.372070" lon="-116.664820">
        <ele>792.466</ele>
        <time>2018-12-28T08:28:22Z</time>
      </trkpt>
      <trkpt lat="36.371980" lon="-116.664550">
        <ele>792.520</ele>
        <time>2018-12-28T08:28:42Z</time>
      </trkpt>
      <trkpt lat="36.371720" lon="-116.663920">
        <ele>794.449</ele>
        <time>2018-12-28T08:29:02Z</time>
      </trkpt>
      <trkpt lat="36.371590" lon="-116.663660">
        <ele>793.168</ele>
        <time>2018-12-28T08:29:22Z</time>
      </trkpt>
      <trkpt lat="36.371440" lon="-116.663370">
        <ele>793.098</ele>
        <time>2018-12-28T08:29:42Z</time>
      </trkpt>
      <trkpt lat="36.371130" lon="-116.662900">
        <ele>792.454</ele>
        <time>2018-12-28T08:30:02Z</time>
      </trkpt>
      <trkpt lat="36.369950" lon="-116.661180">
        <ele>793.856</ele>
        <time>2018-12-28T08:30:22Z</time>
      </trkpt>
      <trkpt lat="36.369590" lon="-116.660660">
        <ele>793.711</ele>
        <time>2018-12-28T08:30:42Z</time>
      </trkpt>
      <trkpt lat="36.368910" lon="-116.659710">
        <ele>800.008</ele>
        <time>2018-12-28T08:31:02Z</time>
      </trkpt>
      <trkpt lat="36.368470" lon="-116.659050">
        <ele>800.838</ele>
        <time>2018-12-28T08:31:22Z</time>
      </trkpt>
      <trkpt lat="36.368410" lon="-116.658960">
        <ele>801.156</ele>
        <time>2018-12-28T08:31:42Z</time>
      </trkpt>
      <trkpt lat="36.368340" lon="-116.658860">
        <ele>801.311</ele>
        <time>2018-12-28T08:32:02Z</time>
      </trkpt>
      <trkpt lat="36.367450" lon="-116.657590">
        <ele>804.262</ele>
        <time>2018-12-28T08:32:22Z</time>
      </trkpt>
      <trkpt lat="36.366920" lon="-116.656880">
        <ele>807.426</ele>
        <time>2018-12-28T08:32:42Z</time>
      </trkpt>
      <trkpt lat="36.366700" lon="-116.656630">
        <ele>808.755</ele>
        <time>2018-12-28T08:33:02Z</time>
      </trkpt>
      <trkpt lat="36.366480" lon="-116.656370">
        <ele>809.934</ele>
        <time>2018-12-28T08:33:22Z</time>
      </trkpt>
      <trkpt lat="36.366340" lon="-116.656210">
        <ele>810.364</ele>
        <time>2018-12-28T08:33:42Z</time>
      </trkpt>
      <trkpt lat="36.366240" lon="-116.656100">
        <ele>810.551</ele>
        <time>2018-12-28T08:34:02Z</time>
      </trkpt>
      <trkpt lat="36.366130" lon="-116.655980">
        <ele>810.301</ele>
        <time>2018-12-28T08:34:22Z</time>
      </trkpt>
      <trkpt lat="36.365880" lon="-116.655730">
        <ele>810.211</ele>
        <time>2018-12-28T08:34:42Z</time>
      </trkpt>
      <trkpt lat="36.365740" lon="-116.655590">
        <ele>810.308</ele>
        <time>2018-12-28T08:35:02Z</time>
      </trkpt>
      <trkpt lat="36.365600" lon="-116.655450">
        <ele>810.578</ele>
        <time>2018-12-28T08:35:22Z</time>
      </trkpt>
      <trkpt lat="36.365240" lon="-116.655120">
        <ele>812.176</ele>
        <time>2018-12-28T08:35:42Z</time>
      </trkpt>
      <trkpt lat="36.365020" lon="-116.654940">
        <ele>812.951</ele>
        <time>2018-12-28T08:36:02Z</time>
      </trkpt>
      <trkpt lat="36.364760" lon="-116.654730">
        <ele>814.172</ele>
        <time>2018-12-28T08:36:22Z</time>
      </trkpt>
      <trkpt lat="36.364540" lon="-116.654550">
        <ele>815.976</ele>
        <time>2018-12-28T08:36:42Z</time>
      </trkpt>
      <trkpt lat="36.364390" lon="-116.654430">
        <ele>817.195</ele>
        <time>2018-12-28T08:37:02Z</time>
      </trkpt>
      <trkpt lat="36.363770" lon="-116.653910">
        <ele>819.264</ele>
        <time>2018-12-28T08:37:22Z</time>
      </trkpt>
      <trkpt lat="36.363280" lon="-116.653530">
        <ele>822.014</ele>
        <time>2018-12-28T08:37:42Z</time>
      </trkpt>
      <trkpt lat="36.362770" lon="-116.653110">
        <ele>825.342</ele>
        <time>2018-12-28T08:38:02Z</time>
      </trkpt>
      <trkpt lat="36.362410" lon="-116.652820">
        <ele>827.322</ele>
        <time>2018-12-28T08:38:22Z</time>
      </trkpt>
      <trkpt lat="36.362140" lon="-116.652600">
        <ele>828.414</ele>
        <time>2018-12-28T08:38:42Z</time>
      </trkpt>
      <trkpt lat="36.361870" lon="-116.652380">
        <ele>829.208</ele>
        <time>2018-12-28T08:39:02Z</time>
      </trkpt>
      <trkpt lat="36.361740" lon="-116.652270">
        <ele>830.897</ele>
        <time>2018-12-28T08:39:22Z</time>
      </trkpt>
      <trkpt lat="36.361620" lon="-116.652180">
        <ele>832.735</ele>
        <time>2018-12-28T08:39:42Z</time>
      </trkpt>
      <trkpt lat="36.361470" lon="-116.652070">
        <ele>835.140</ele>
        <time>2018-12-28T08:40:02Z</time>
      </trkpt>
      <trkpt lat="36.361340" lon="-116.651970">
        <ele>837.421</ele>
        <time>2018-12-28T08:40:22Z</time>
      </trkpt>
      <trkpt lat="36.361160" lon="-116.651810">
        <ele>838.625</ele>
        <time>2018-12-28T08:40:42Z</time>
      </trkpt>
      <trkpt lat="36.361020" lon="-116.651690">
        <ele>838.754</ele>
        <time>2018-12-28T08:41:02Z</time>
      </trkpt>
      <trkpt lat="36.360860" lon="-116.651540">
        <ele>839.033</ele>
        <time>2018-12-28T08:41:22Z</time>
      </trkpt>
      <trkpt lat="36.360770" lon="-116.651460">
        <ele>839.073</ele>
        <time>2018-12-28T08:41:42Z</time>
      </trkpt>
      <trkpt lat="36.360680" lon="-116.651370">
        <ele>839.148</ele>
        <time>2018-12-28T08:42:02Z</time>
      </trkpt>
      <trkpt lat="36.360540" lon="-116.651230">
        <ele>839.161</ele>
        <time>2018-12-28T08:42:22Z</time>
      </trkpt>
      <trkpt lat="36.360400" lon="-116.651080">
        <ele>839.217</ele>
        <time>2018-12-28T08:42:42Z</time>
      </trkpt>
      <trkpt lat="36.360280" lon="-116.650940">
        <ele>839.408</ele>
        <time>2018-12-28T08:43:02Z</time>
      </trkpt>
      <trkpt lat="36.360080" lon="-116.650720">
        <ele>839.777</ele>
        <time>2018-12-28T08:43:22Z</time>
      </trkpt>
      <trkpt lat="36.359910" lon="-116.650530">
        <ele>839.995</ele>
        <time>2018-12-28T08:43:42Z</time>
      </trkpt>
      <trkpt lat="36.359640" lon="-116.650190">
        <ele>839.770</ele>
        <time>2018-12-28T08:44:02Z</time>
      </trkpt>
      <trkpt lat="36.359450" lon="-116.649960">
        <ele>839.751</ele>
        <time>2018-12-28T08:44:22Z</time>
      </trkpt>
      <trkpt lat="36.359100" lon="-116.649530">
        <ele>839.895</ele>
        <time>2018-12-28T08:44:42Z</time>
      </trkpt>
      <trkpt lat="36.358960" lon="-116.649360">
        <ele>839.964</ele>
        <time>2018-12-28T08:45:02Z</time>
      </trkpt>
      <trkpt lat="36.358880" lon="-116.649260">
        <ele>840.033</ele>
        <time>2018-12-28T08:45:22Z</time>
      </trkpt>
      <trkpt lat="36.358710" lon="-116.649050">
        <ele>840.443</ele>
        <time>2018-12-28T08:45:42Z</time>
      </trkpt>
      <trkpt lat="36.358610" lon="-116.648930">
        <ele>841.487</ele>
        <time>2018-12-28T08:46:02Z</time>
      </trkpt>
      <trkpt lat="36.358520" lon="-116.648830">
        <ele>842.242</ele>
        <time>2018-12-28T08:46:22Z</time>
      </trkpt>
      <trkpt lat="36.358410" lon="-116.648710">
        <ele>843.326</ele>
        <time>2018-12-28T08:46:42Z</time>
      </trkpt>
      <trkpt lat="36.358270" lon="-116.648540">
        <ele>844.708</ele>
        <time>2018-12-28T08:47:02Z</time>
      </trkpt>
      <trkpt lat="36.358180" lon="-116.648440">
        <ele>845.331</ele>
        <time>2018-12-28T08:47:22Z</time>
      </trkpt>
      <trkpt lat="36.357960" lon="-116.648190">
        <ele>845.749</ele>
        <time>2018-12-28T08:47:42Z</time>
      </trkpt>
      <trkpt lat="36.357850" lon="-116.648040">
        <ele>846.274</ele>
        <time>2018-12-28T08:48:02Z</time>
      </trkpt>
      <trkpt lat="36.357760" lon="-116.647930">
        <ele>846.655</ele>
        <time>2018-12-28T08:48:22Z</time>
      </trkpt>
      <trkpt lat="36.357590" lon="-116.647730">
        <ele>847.469</ele>
        <time>2018-12-28T08:48:42Z</time>
      </trkpt>
      <trkpt lat="36.357300" lon="-116.647380">
        <ele>848.538</ele>
        <time>2018-12-28T08:49:02Z</time>
      </trkpt>
      <trkpt lat="36.356960" lon="-116.646980">
        <ele>850.497</ele>
        <time>2018-12-28T08:49:22Z</time>
      </trkpt>
      <trkpt lat="36.356730" lon="-116.646700">
        <ele>854.427</ele>
        <time>2018-12-28T08:49:42Z</time>
      </trkpt>
      <trkpt lat="36.356310" lon="-116.646200">
        <ele>856.974</ele>
        <time>2018-12-28T08:50:02Z</time>
      </trkpt>
      <trkpt lat="36.355910" lon="-116.645730">
        <ele>858.656</ele>
        <time>2018-12-28T08:50:22Z</time>
      </trkpt>
      <trkpt lat="36.355490" lon="-116.645220">
        <ele>859.521</ele>
        <time>2018-12-28T08:50:42Z</time>
      </trkpt>
      <trkpt lat="36.355380" lon="-116.645090">
        <ele>859.708</ele>
        <time>2018-12-28T08:51:02Z</time>
      </trkpt>
      <trkpt lat="36.355150" lon="-116.644810">
        <ele>860.160</ele>
        <time>2018-12-28T08:51:22Z</time>
      </trkpt>
      <trkpt lat="36.354940" lon="-116.644560">
        <ele>860.178</ele>
        <time>2018-12-28T08:51:42Z</time>
      </trkpt>
      <trkpt lat="36.354780" lon="-116.644370">
        <ele>860.013</ele>
        <time>2018-12-28T08:52:02Z</time>
      </trkpt>
      <trkpt lat="36.354630" lon="-116.644200">
        <ele>860.064</ele>
        <time>2018-12-28T08:52:22Z</time>
      </trkpt>
      <trkpt lat="36.354500" lon="-116.644040">
        <ele>860.178</ele>
        <time>2018-12-28T08:52:42Z</time>
      </trkpt>
      <trkpt lat="36.354160" lon="-116.643640">
        <ele>862.027</ele>
        <time>2018-12-28T08:53:02Z</time>
      </trkpt>
      <trkpt lat="36.353870" lon="-116.643300">
        <ele>862.886</ele>
        <time>2018-12-28T08:53:22Z</time>
      </trkpt>
      <trkpt lat="36.353740" lon="-116.643130">
        <ele>863.336</ele>
        <time>2018-12-28T08:53:42Z</time>
      </trkpt>
      <trkpt lat="36.353640" lon="-116.643010">
        <ele>863.445</ele>
        <time>2018-12-28T08:54:02Z</time>
      </trkpt>
      <trkpt lat="36.353550" lon="-116.642890">
        <ele>863.647</ele>
        <time>2018-12-28T08:54:22Z</time>
      </trkpt>
      <trkpt lat="36.353430" lon="-116.642730">
        <ele>863.811</ele>
        <time>2018-12-28T08:54:42Z</time>
      </trkpt>
      <trkpt lat="36.353280" lon="-116.642490">
        <ele>865.008</ele>
        <time>2018-12-28T08:55:02Z</time>
      </trkpt>
      <trkpt lat="36.353190" lon="-116.642340">
        <ele>865.477</ele>
        <time>2018-12-28T08:55:22Z</time>
      </trkpt>
      <trkpt lat="36.353120" lon="-116.642210">
        <ele>867.885</ele>
        <time>2018-12-28T08:55:42Z</time>
      </trkpt>
      <trkpt lat="36.352990" lon="-116.641970">
        <ele>870.360</ele>
        <time>2018-12-28T08:56:02Z</time>
      </trkpt>
      <trkpt lat="36.352880" lon="-116.641740">
        <ele>870.971</ele>
        <time>2018-12-28T08:56:22Z</time>
      </trkpt>
      <trkpt lat="36.352800" lon="-116.641570">
        <ele>871.165</ele>
        <time>2018-12-28T08:56:42Z</time>
      </trkpt>
      <trkpt lat="36.352670" lon="-116.641230">
        <ele>871.884</ele>
        <time>2018-12-28T08:57:02Z</time>
      </trkpt>
      <trkpt lat="36.352600" lon="-116.641050">
        <ele>871.943</ele>
        <time>2018-12-28T08:57:22Z</time>
      </trkpt>
      <trkpt lat="36.352540" lon="-116.640860">
        <ele>872.073</ele>
        <time>2018-12-28T08:57:42Z</time>
      </trkpt>
      <trkpt lat="36.352410" lon="-116.640410">
        <ele>871.963</ele>
        <time>2018-12-28T08:58:02Z</time>
      </trkpt>
      <trkpt lat="36.352260" lon="-116.639850">
        <ele>872.344</ele>
        <time>2018-12-28T08:58:22Z</time>
      </trkpt>
      <trkpt lat="36.352070" lon="-116.639180">
        <ele>872.618</ele>
        <time>2018-12-28T08:58:42Z</time>
      </trkpt>
      <trkpt lat="36.351920" lon="-116.638680">
        <ele>872.308</ele>
        <time>2018-12-28T08:59:02Z</time>
      </trkpt>
      <trkpt lat="36.351810" lon="-116.638270">
        <ele>872.069</ele>
        <time>2018-12-28T08:59:22Z</time>
      </trkpt>
      <trkpt lat="36.351550" lon="-116.637360">
        <ele>869.997</ele>
        <time>2018-12-28T08:59:42Z</time>
      </trkpt>
      <trkpt lat="36.351410" lon="-116.636840">
        <ele>872.122</ele>
        <time>2018-12-28T09:00:02Z</time>
      </trkpt>
      <trkpt lat="36.351210" lon="-116.636100">
        <ele>874.323</ele>
        <time>2018-12-28T09:00:22Z</time>
      </trkpt>
      <trkpt lat="36.351150" lon="-116.635900">
        <ele>874.897</ele>
        <time>2018-12-28T09:00:42Z</time>
      </trkpt>
      <trkpt lat="36.350980" lon="-116.635270">
        <ele>875.826</ele>
        <time>2018-12-28T09:01:02Z</time>
      </trkpt>
      <trkpt lat="36.350880" lon="-116.634900">
        <ele>876.065</ele>
        <time>2018-12-28T09:01:22Z</time>
      </trkpt>
      <trkpt lat="36.350780" lon="-116.634570">
        <ele>876.135</ele>
        <time>2018-12-28T09:01:42Z</time>
      </trkpt>
      <trkpt lat="36.350610" lon="-116.633940">
        <ele>877.586</ele>
        <time>2018-12-28T09:02:02Z</time>
      </trkpt>
      <trkpt lat="36.350470" lon="-116.633420">
        <ele>879.860</ele>
        <time>2018-12-28T09:02:22Z</time>
      </trkpt>
      <trkpt lat="36.350310" lon="-116.632870">
        <ele>880.426</ele>
        <time>2018-12-28T09:02:42Z</time>
      </trkpt>
      <trkpt lat="36.350220" lon="-116.632550">
        <ele>880.808</ele>
        <time>2018-12-28T09:03:02Z</time>
      </trkpt>
      <trkpt lat="36.350140" lon="-116.632230">
        <ele>881.221</ele>
        <time>2018-12-28T09:03:22Z</time>
      </trkpt>
      <trkpt lat="36.349720" lon="-116.630710">
        <ele>886.129</ele>
        <time>2018-12-28T09:03:42Z</time>
      </trkpt>
      <trkpt lat="36.349580" lon="-116.630210">
        <ele>888.444</ele>
        <time>2018-12-28T09:04:02Z</time>
      </trkpt>
      <trkpt lat="36.349440" lon="-116.629710">
        <ele>890.125</ele>
        <time>2018-12-28T09:04:22Z</time>
      </trkpt>
      <trkpt lat="36.349350" lon="-116.629380">
        <ele>891.259</ele>
        <time>2018-12-28T09:04:42Z</time>
      </trkpt>
      <trkpt lat="36.349280" lon="-116.629150">
        <ele>891.648</ele>
        <time>2018-12-28T09:05:02Z</time>
      </trkpt>
      <trkpt lat="36.349130" lon="-116.628610">
        <ele>891.917</ele>
        <time>2018-12-28T09:05:22Z</time>
      </trkpt>
      <trkpt lat="36.349030" lon="-116.628250">
        <ele>891.837</ele>
        <time>2018-12-28T09:05:42Z</time>
      </trkpt>
      <trkpt lat="36.348930" lon="-116.627900">
        <ele>891.415</ele>
        <time>2018-12-28T09:06:02Z</time>
      </trkpt>
      <trkpt lat="36.348760" lon="-116.627310">
        <ele>892.065</ele>
        <time>2018-12-28T09:06:22Z</time>
      </trkpt>
      <trkpt lat="36.348640" lon="-116.626870">
        <ele>893.011</ele>
        <time>2018-12-28T09:06:42Z</time>
      </trkpt>
      <trkpt lat="36.348500" lon="-116.626370">
        <ele>894.608</ele>
        <time>2018-12-28T09:07:02Z</time>
      </trkpt>
      <trkpt lat="36.347870" lon="-116.624080">
        <ele>899.874</ele>
        <time>2018-12-28T09:07:22Z</time>
      </trkpt>
      <trkpt lat="36.347780" lon="-116.623740">
        <ele>900.282</ele>
        <time>2018-12-28T09:07:42Z</time>
      </trkpt>
      <trkpt lat="36.347600" lon="-116.623100">
        <ele>901.677</ele>
        <time>2018-12-28T09:08:02Z</time>
      </trkpt>
      <trkpt lat="36.347450" lon="-116.622560">
        <ele>902.968</ele>
        <time>2018-12-28T09:08:22Z</time>
      </trkpt>
      <trkpt lat="36.347350" lon="-116.622180">
        <ele>903.172</ele>
        <time>2018-12-28T09:08:42Z</time>
      </trkpt>
      <trkpt lat="36.347030" lon="-116.621050">
        <ele>904.681</ele>
        <time>2018-12-28T09:09:02Z</time>
      </trkpt>
      <trkpt lat="36.346890" lon="-116.620560">
        <ele>905.420</ele>
        <time>2018-12-28T09:09:22Z</time>
      </trkpt>
      <trkpt lat="36.346750" lon="-116.620060">
        <ele>906.160</ele>
        <time>2018-12-28T09:09:42Z</time>
      </trkpt>
      <trkpt lat="36.346490" lon="-116.619110">
        <ele>907.679</ele>
        <time>2018-12-28T09:10:02Z</time>
      </trkpt>
      <trkpt lat="36.346190" lon="-116.618030">
        <ele>909.605</ele>
        <time>2018-12-28T09:10:22Z</time>
      </trkpt>
      <trkpt lat="36.346060" lon="-116.617560">
        <ele>910.425</ele>
        <time>2018-12-28T09:10:42Z</time>
      </trkpt>
      <trkpt lat="36.345940" lon="-116.617110">
        <ele>911.208</ele>
        <time>2018-12-28T09:11:02Z</time>
      </trkpt>
      <trkpt lat="36.345290" lon="-116.614770">
        <ele>917.020</ele>
        <time>2018-12-28T09:11:22Z</time>
      </trkpt>
      <trkpt lat="36.343640" lon="-116.608820">
        <ele>925.538</ele>
        <time>2018-12-28T09:11:42Z</time>
      </trkpt>
      <trkpt lat="36.342880" lon="-116.606020">
        <ele>933.513</ele>
        <time>2018-12-28T09:12:02Z</time>
      </trkpt>
      <trkpt lat="36.342590" lon="-116.605000">
        <ele>934.454</ele>
        <time>2018-12-28T09:12:22Z</time>
      </trkpt>
      <trkpt lat="36.342340" lon="-116.604130">
        <ele>933.818</ele>
        <time>2018-12-28T09:12:42Z</time>
      </trkpt>
      <trkpt lat="36.342060" lon="-116.603110">
        <ele>933.357</ele>
        <time>2018-12-28T09:13:02Z</time>
      </trkpt>
      <trkpt lat="36.341750" lon="-116.601990">
        <ele>932.556</ele>
        <time>2018-12-28T09:13:22Z</time>
      </trkpt>
      <trkpt lat="36.341570" lon="-116.601350">
        <ele>932.166</ele>
        <time>2018-12-28T09:13:42Z</time>
      </trkpt>
      <trkpt lat="36.341300" lon="-116.600370">
        <ele>931.533</ele>
        <time>2018-12-28T09:14:02Z</time>
      </trkpt>
      <trkpt lat="36.340820" lon="-116.598720">
        <ele>930.423</ele>
        <time>2018-12-28T09:14:22Z</time>
      </trkpt>
      <trkpt lat="36.340760" lon="-116.598530">
        <ele>930.315</ele>
        <time>2018-12-28T09:14:42Z</time>
      </trkpt>
      <trkpt lat="36.340650" lon="-116.598150">
        <ele>930.008</ele>
        <time>2018-12-28T09:15:02Z</time>
      </trkpt>
      <trkpt lat="36.340500" lon="-116.597740">
        <ele>929.796</ele>
        <time>2018-12-28T09:15:22Z</time>
      </trkpt>
      <trkpt lat="36.340320" lon="-116.597200">
        <ele>929.094</ele>
        <time>2018-12-28T09:15:42Z</time>
      </trkpt>
      <trkpt lat="36.339940" lon="-116.596180">
        <ele>928.159</ele>
        <time>2018-12-28T09:16:02Z</time>
      </trkpt>
      <trkpt lat="36.339760" lon="-116.595700">
        <ele>927.890</ele>
        <time>2018-12-28T09:16:22Z</time>
      </trkpt>
      <trkpt lat="36.339620" lon="-116.595360">
        <ele>927.514</ele>
        <time>2018-12-28T09:16:42Z</time>
      </trkpt>
      <trkpt lat="36.339120" lon="-116.594200">
        <ele>927.473</ele>
        <time>2018-12-28T09:17:02Z</time>
      </trkpt>
      <trkpt lat="36.337950" lon="-116.591620">
        <ele>921.362</ele>
        <time>2018-12-28T09:17:22Z</time>
      </trkpt>
      <trkpt lat="36.337760" lon="-116.591190">
        <ele>920.572</ele>
        <time>2018-12-28T09:17:42Z</time>
      </trkpt>
      <trkpt lat="36.337310" lon="-116.590210">
        <ele>918.846</ele>
        <time>2018-12-28T09:18:02Z</time>
      </trkpt>
      <trkpt lat="36.337060" lon="-116.589650">
        <ele>917.888</ele>
        <time>2018-12-28T09:18:22Z</time>
      </trkpt>
      <trkpt lat="36.336030" lon="-116.587390">
        <ele>915.116</ele>
        <time>2018-12-28T09:18:42Z</time>
      </trkpt>
      <trkpt lat="36.334880" lon="-116.584840">
        <ele>908.908</ele>
        <time>2018-12-28T09:19:02Z</time>
      </trkpt>
      <trkpt lat="36.334680" lon="-116.584390">
        <ele>908.097</ele>
        <time>2018-12-28T09:19:22Z</time>
      </trkpt>
      <trkpt lat="36.334400" lon="-116.583780">
        <ele>906.965</ele>
        <time>2018-12-28T09:19:42Z</time>
      </trkpt>
      <trkpt lat="36.333800" lon="-116.582460">
        <ele>904.920</ele>
        <time>2018-12-28T09:20:02Z</time>
      </trkpt>
      <trkpt lat="36.333520" lon="-116.581810">
        <ele>903.821</ele>
        <time>2018-12-28T09:20:22Z</time>
      </trkpt>
      <trkpt lat="36.333010" lon="-116.580720">
        <ele>901.785</ele>
        <time>2018-12-28T09:20:42Z</time>
      </trkpt>
      <trkpt lat="36.332200" lon="-116.578930">
        <ele>896.994</ele>
        <time>2018-12-28T09:21:02Z</time>
      </trkpt>
      <trkpt lat="36.331580" lon="-116.577540">
        <ele>893.563</ele>
        <time>2018-12-28T09:21:22Z</time>
      </trkpt>
      <trkpt lat="36.330850" lon="-116.575940">
        <ele>890.833</ele>
        <time>2018-12-28T09:21:42Z</time>
      </trkpt>
      <trkpt lat="36.330650" lon="-116.575490">
        <ele>889.219</ele>
        <time>2018-12-28T09:22:02Z</time>
      </trkpt>
      <trkpt lat="36.328990" lon="-116.571830">
        <ele>880.409</ele>
        <time>2018-12-28T09:22:22Z</time>
      </trkpt>
      <trkpt lat="36.328770" lon="-116.571350">
        <ele>879.419</ele>
        <time>2018-12-28T09:22:42Z</time>
      </trkpt>
      <trkpt lat="36.328540" lon="-116.570830">
        <ele>879.008</ele>
        <time>2018-12-28T09:23:02Z</time>
      </trkpt>
      <trkpt lat="36.328120" lon="-116.569910">
        <ele>876.044</ele>
        <time>2018-12-28T09:23:22Z</time>
      </trkpt>
      <trkpt lat="36.327910" lon="-116.569440">
        <ele>874.412</ele>
        <time>2018-12-28T09:23:42Z</time>
      </trkpt>
      <trkpt lat="36.327230" lon="-116.567950">
        <ele>870.137</ele>
        <time>2018-12-28T09:24:02Z</time>
      </trkpt>
      <trkpt lat="36.327020" lon="-116.567500">
        <ele>868.978</ele>
        <time>2018-12-28T09:24:22Z</time>
      </trkpt>
      <trkpt lat="36.326120" lon="-116.565500">
        <ele>864.342</ele>
        <time>2018-12-28T09:24:42Z</time>
      </trkpt>
      <trkpt lat="36.325740" lon="-116.564680">
        <ele>861.771</ele>
        <time>2018-12-28T09:25:02Z</time>
      </trkpt>
      <trkpt lat="36.325470" lon="-116.564070">
        <ele>860.090</ele>
        <time>2018-12-28T09:25:22Z</time>
      </trkpt>
      <trkpt lat="36.324550" lon="-116.562030">
        <ele>854.970</ele>
        <time>2018-12-28T09:25:42Z</time>
      </trkpt>
      <trkpt lat="36.324240" lon="-116.561340">
        <ele>854.356</ele>
        <time>2018-12-28T09:26:02Z</time>
      </trkpt>
      <trkpt lat="36.323160" lon="-116.558970">
        <ele>845.759</ele>
        <time>2018-12-28T09:26:22Z</time>
      </trkpt>
      <trkpt lat="36.322620" lon="-116.557750">
        <ele>842.514</ele>
        <time>2018-12-28T09:26:42Z</time>
      </trkpt>
      <trkpt lat="36.322470" lon="-116.557440">
        <ele>842.108</ele>
        <time>2018-12-28T09:27:02Z</time>
      </trkpt>
      <trkpt lat="36.322100" lon="-116.556620">
        <ele>840.358</ele>
        <time>2018-12-28T09:27:22Z</time>
      </trkpt>
      <trkpt lat="36.321720" lon="-116.555800">
        <ele>836.436</ele>
        <time>2018-12-28T09:27:42Z</time>
      </trkpt>
      <trkpt lat="36.321530" lon="-116.555370">
        <ele>835.121</ele>
        <time>2018-12-28T09:28:02Z</time>
      </trkpt>
      <trkpt lat="36.320410" lon="-116.552900">
        <ele>830.042</ele>
        <time>2018-12-28T09:28:22Z</time>
      </trkpt>
      <trkpt lat="36.319700" lon="-116.551310">
        <ele>824.826</ele>
        <time>2018-12-28T09:28:42Z</time>
      </trkpt>
      <trkpt lat="36.319560" lon="-116.551000">
        <ele>824.125</ele>
        <time>2018-12-28T09:29:02Z</time>
      </trkpt>
      <trkpt lat="36.319210" lon="-116.550230">
        <ele>822.414</ele>
        <time>2018-12-28T09:29:22Z</time>
      </trkpt>
      <trkpt lat="36.318900" lon="-116.549560">
        <ele>821.424</ele>
        <time>2018-12-28T09:29:42Z</time>
      </trkpt>
      <trkpt lat="36.318650" lon="-116.549030">
        <ele>821.046</ele>
        <time>2018-12-28T09:30:02Z</time>
      </trkpt>
      <trkpt lat="36.318360" lon="-116.548370">
        <ele>820.388</ele>
        <time>2018-12-28T09:30:22Z</time>
      </trkpt>
      <trkpt lat="36.318220" lon="-116.548060">
        <ele>819.816</ele>
        <time>2018-12-28T09:30:42Z</time>
      </trkpt>
      <trkpt lat="36.318050" lon="-116.547680">
        <ele>819.108</ele>
        <time>2018-12-28T09:31:02Z</time>
      </trkpt>
      <trkpt lat="36.317910" lon="-116.547380">
        <ele>818.447</ele>
        <time>2018-12-28T09:31:22Z</time>
      </trkpt>
      <trkpt lat="36.317760" lon="-116.547060">
        <ele>817.865</ele>
        <time>2018-12-28T09:31:42Z</time>
      </trkpt>
      <trkpt lat="36.316460" lon="-116.544170">
        <ele>813.030</ele>
        <time>2018-12-28T09:32:02Z</time>
      </trkpt>
      <trkpt lat="36.315600" lon="-116.542290">
        <ele>808.561</ele>
        <time>2018-12-28T09:32:22Z</time>
      </trkpt>
      <trkpt lat="36.315450" lon="-116.541960">
        <ele>807.555</ele>
        <time>2018-12-28T09:32:42Z</time>
      </trkpt>
      <trkpt lat="36.315320" lon="-116.541670">
        <ele>806.554</ele>
        <time>2018-12-28T09:33:02Z</time>
      </trkpt>
      <trkpt lat="36.315180" lon="-116.541360">
        <ele>806.013</ele>
        <time>2018-12-28T09:33:22Z</time>
      </trkpt>
      <trkpt lat="36.314760" lon="-116.540410">
        <ele>804.383</ele>
        <time>2018-12-28T09:33:42Z</time>
      </trkpt>
      <trkpt lat="36.314400" lon="-116.539640">
        <ele>801.834</ele>
        <time>2018-12-28T09:34:02Z</time>
      </trkpt>
      <trkpt lat="36.314100" lon="-116.538970">
        <ele>800.555</ele>
        <time>2018-12-28T09:34:22Z</time>
      </trkpt>
      <trkpt lat="36.313910" lon="-116.538550">
        <ele>799.710</ele>
        <time>2018-12-28T09:34:42Z</time>
      </trkpt>
      <trkpt lat="36.313780" lon="-116.538260">
        <ele>799.208</ele>
        <time>2018-12-28T09:35:02Z</time>
      </trkpt>
      <trkpt lat="36.313170" lon="-116.536940">
        <ele>796.796</ele>
        <time>2018-12-28T09:35:22Z</time>
      </trkpt>
      <trkpt lat="36.312390" lon="-116.535220">
        <ele>793.634</ele>
        <time>2018-12-28T09:35:42Z</time>
      </trkpt>
      <trkpt lat="36.312080" lon="-116.534510">
        <ele>793.559</ele>
        <time>2018-12-28T09:36:02Z</time>
      </trkpt>
      <trkpt lat="36.311740" lon="-116.533770">
        <ele>793.430</ele>
        <time>2018-12-28T09:36:22Z</time>
      </trkpt>
      <trkpt lat="36.311510" lon="-116.533260">
        <ele>789.114</ele>
        <time>2018-12-28T09:36:42Z</time>
      </trkpt>
      <trkpt lat="36.310920" lon="-116.531970">
        <ele>785.733</ele>
        <time>2018-12-28T09:37:02Z</time>
      </trkpt>
      <trkpt lat="36.310750" lon="-116.531600">
        <ele>784.842</ele>
        <time>2018-12-28T09:37:22Z</time>
      </trkpt>
      <trkpt lat="36.310280" lon="-116.530550">
        <ele>782.412</ele>
        <time>2018-12-28T09:37:42Z</time>
      </trkpt>
      <trkpt lat="36.309390" lon="-116.528590">
        <ele>779.127</ele>
        <time>2018-12-28T09:38:02Z</time>
      </trkpt>
      <trkpt lat="36.308960" lon="-116.527610">
        <ele>776.568</ele>
        <time>2018-12-28T09:38:22Z</time>
      </trkpt>
      <trkpt lat="36.308680" lon="-116.526910">
        <ele>775.014</ele>
        <time>2018-12-28T09:38:42Z</time>
      </trkpt>
      <trkpt lat="36.308310" lon="-116.525950">
        <ele>773.208</ele>
        <time>2018-12-28T09:39:02Z</time>
      </trkpt>
      <trkpt lat="36.308140" lon="-116.525470">
        <ele>772.345</ele>
        <time>2018-12-28T09:39:22Z</time>
      </trkpt>
      <trkpt lat="36.307920" lon="-116.524830">
        <ele>771.283</ele>
        <time>2018-12-28T09:39:42Z</time>
      </trkpt>
      <trkpt lat="36.307800" lon="-116.524460">
        <ele>770.548</ele>
        <time>2018-12-28T09:40:02Z</time>
      </trkpt>
      <trkpt lat="36.307660" lon="-116.524010">
        <ele>769.889</ele>
        <time>2018-12-28T09:40:22Z</time>
      </trkpt>
      <trkpt lat="36.307530" lon="-116.523590">
        <ele>769.293</ele>
        <time>2018-12-28T09:40:42Z</time>
      </trkpt>
      <trkpt lat="36.307410" lon="-116.523200">
        <ele>768.982</ele>
        <time>2018-12-28T09:41:02Z</time>
      </trkpt>
      <trkpt lat="36.307210" lon="-116.522430">
        <ele>767.941</ele>
        <time>2018-12-28T09:41:22Z</time>
      </trkpt>
      <trkpt lat="36.307040" lon="-116.521760">
        <ele>765.711</ele>
        <time>2018-12-28T09:41:42Z</time>
      </trkpt>
      <trkpt lat="36.306910" lon="-116.521210">
        <ele>764.976</ele>
        <time>2018-12-28T09:42:02Z</time>
      </trkpt>
      <trkpt lat="36.306730" lon="-116.520420">
        <ele>763.690</ele>
        <time>2018-12-28T09:42:22Z</time>
      </trkpt>
      <trkpt lat="36.306500" lon="-116.519370">
        <ele>762.019</ele>
        <time>2018-12-28T09:42:42Z</time>
      </trkpt>
      <trkpt lat="36.306310" lon="-116.518510">
        <ele>760.608</ele>
        <time>2018-12-28T09:43:02Z</time>
      </trkpt>
      <trkpt lat="36.306200" lon="-116.518010">
        <ele>759.820</ele>
        <time>2018-12-28T09:43:22Z</time>
      </trkpt>
      <trkpt lat="36.306110" lon="-116.517610">
        <ele>759.258</ele>
        <time>2018-12-28T09:43:42Z</time>
      </trkpt>
      <trkpt lat="36.305950" lon="-116.516890">
        <ele>758.143</ele>
        <time>2018-12-28T09:44:02Z</time>
      </trkpt>
      <trkpt lat="36.305670" lon="-116.515610">
        <ele>756.214</ele>
        <time>2018-12-28T09:44:22Z</time>
      </trkpt>
      <trkpt lat="36.305340" lon="-116.514120">
        <ele>753.148</ele>
        <time>2018-12-28T09:44:42Z</time>
      </trkpt>
      <trkpt lat="36.305060" lon="-116.512900">
        <ele>750.827</ele>
        <time>2018-12-28T09:45:02Z</time>
      </trkpt>
      <trkpt lat="36.304930" lon="-116.512270">
        <ele>749.676</ele>
        <time>2018-12-28T09:45:22Z</time>
      </trkpt>
      <trkpt lat="36.304680" lon="-116.511240">
        <ele>747.866</ele>
        <time>2018-12-28T09:45:42Z</time>
      </trkpt>
      <trkpt lat="36.304540" lon="-116.510560">
        <ele>747.623</ele>
        <time>2018-12-28T09:46:02Z</time>
      </trkpt>
      <trkpt lat="36.303960" lon="-116.507920">
        <ele>744.883</ele>
        <time>2018-12-28T09:46:22Z</time>
      </trkpt>
      <trkpt lat="36.303790" lon="-116.507150">
        <ele>743.511</ele>
        <time>2018-12-28T09:46:42Z</time>
      </trkpt>
      <trkpt lat="36.303650" lon="-116.506380">
        <ele>742.908</ele>
        <time>2018-12-28T09:47:02Z</time>
      </trkpt>
      <trkpt lat="36.303570" lon="-116.505980">
        <ele>742.635</ele>
        <time>2018-12-28T09:47:22Z</time>
      </trkpt>
      <trkpt lat="36.303480" lon="-116.505390">
        <ele>742.393</ele>
        <time>2018-12-28T09:47:42Z</time>
      </trkpt>
      <trkpt lat="36.303390" lon="-116.504790">
        <ele>741.568</ele>
        <time>2018-12-28T09:48:02Z</time>
      </trkpt>
      <trkpt lat="36.303330" lon="-116.504350">
        <ele>740.629</ele>
        <time>2018-12-28T09:48:22Z</time>
      </trkpt>
      <trkpt lat="36.303280" lon="-116.504030">
        <ele>739.843</ele>
        <time>2018-12-28T09:48:42Z</time>
      </trkpt>
      <trkpt lat="36.303220" lon="-116.503530">
        <ele>738.642</ele>
        <time>2018-12-28T09:49:02Z</time>
      </trkpt>
      <trkpt lat="36.303080" lon="-116.502210">
        <ele>736.291</ele>
        <time>2018-12-28T09:49:22Z</time>
      </trkpt>
      <trkpt lat="36.303040" lon="-116.501600">
        <ele>735.431</ele>
        <time>2018-12-28T09:49:42Z</time>
      </trkpt>
      <trkpt lat="36.303010" lon="-116.501170">
        <ele>734.737</ele>
        <time>2018-12-28T09:50:02Z</time>
      </trkpt>
      <trkpt lat="36.302990" lon="-116.500650">
        <ele>733.949</ele>
        <time>2018-12-28T09:50:22Z</time>
      </trkpt>
      <trkpt lat="36.302970" lon="-116.500180">
        <ele>733.113</ele>
        <time>2018-12-28T09:50:42Z</time>
      </trkpt>
      <trkpt lat="36.302950" lon="-116.498730">
        <ele>730.808</ele>
        <time>2018-12-28T09:51:02Z</time>
      </trkpt>
      <trkpt lat="36.302990" lon="-116.496120">
        <ele>724.066</ele>
        <time>2018-12-28T09:51:22Z</time>
      </trkpt>
      <trkpt lat="36.303030" lon="-116.494790">
        <ele>720.644</ele>
        <time>2018-12-28T09:51:42Z</time>
      </trkpt>
      <trkpt lat="36.303080" lon="-116.492270">
        <ele>715.649</ele>
        <time>2018-12-28T09:52:02Z</time>
      </trkpt>
      <trkpt lat="36.303180" lon="-116.487440">
        <ele>705.460</ele>
        <time>2018-12-28T09:52:22Z</time>
      </trkpt>
      <trkpt lat="36.303230" lon="-116.485160">
        <ele>701.984</ele>
        <time>2018-12-28T09:52:42Z</time>
      </trkpt>
      <trkpt lat="36.303280" lon="-116.483020">
        <ele>698.193</ele>
        <time>2018-12-28T09:53:02Z</time>
      </trkpt>
      <trkpt lat="36.303370" lon="-116.478460">
        <ele>692.312</ele>
        <time>2018-12-28T09:53:22Z</time>
      </trkpt>
      <trkpt lat="36.303440" lon="-116.475080">
        <ele>687.832</ele>
        <time>2018-12-28T09:53:42Z</time>
      </trkpt>
      <trkpt lat="36.303530" lon="-116.470890">
        <ele>682.565</ele>
        <time>2018-12-28T09:54:02Z</time>
      </trkpt>
      <trkpt lat="36.303720" lon="-116.461840">
        <ele>670.268</ele>
        <time>2018-12-28T09:54:22Z</time>
      </trkpt>
      <trkpt lat="36.303920" lon="-116.450960">
        <ele>655.814</ele>
        <time>2018-12-28T09:54:42Z</time>
      </trkpt>
      <trkpt lat="36.304230" lon="-116.436100">
        <ele>638.708</ele>
        <time>2018-12-28T09:55:02Z</time>
      </trkpt>
      <trkpt lat="36.304250" lon="-116.435390">
        <ele>637.969</ele>
        <time>2018-12-28T09:55:22Z</time>
      </trkpt>
      <trkpt lat="36.304260" lon="-116.434610">
        <ele>637.137</ele>
        <time>2018-12-28T09:55:42Z</time>
      </trkpt>
      <trkpt lat="36.304270" lon="-116.433950">
        <ele>636.452</ele>
        <time>2018-12-28T09:56:02Z</time>
      </trkpt>
      <trkpt lat="36.304300" lon="-116.432470">
        <ele>635.293</ele>
        <time>2018-12-28T09:56:22Z</time>
      </trkpt>
      <trkpt lat="36.304310" lon="-116.431820">
        <ele>634.977</ele>
        <time>2018-12-28T09:56:42Z</time>
      </trkpt>
      <trkpt lat="36.304350" lon="-116.429840">
        <ele>632.876</ele>
        <time>2018-12-28T09:57:02Z</time>
      </trkpt>
      <trkpt lat="36.304410" lon="-116.426690">
        <ele>630.195</ele>
        <time>2018-12-28T09:57:22Z</time>
      </trkpt>
      <trkpt lat="36.304480" lon="-116.423360">
        <ele>626.865</ele>
        <time>2018-12-28T09:57:42Z</time>
      </trkpt>
      <trkpt lat="36.304510" lon="-116.421780">
        <ele>625.838</ele>
        <time>2018-12-28T09:58:02Z</time>
      </trkpt>
      <trkpt lat="36.304550" lon="-116.419860">
        <ele>625.270</ele>
        <time>2018-12-28T09:58:22Z</time>
      </trkpt>
      <trkpt lat="36.304560" lon="-116.418980">
        <ele>624.917</ele>
        <time>2018-12-28T09:58:42Z</time>
      </trkpt>
      <trkpt lat="36.304570" lon="-116.418560">
        <ele>624.808</ele>
        <time>2018-12-28T09:59:02Z</time>
      </trkpt>
      <trkpt lat="36.304610" lon="-116.416490">
        <ele>624.126</ele>
        <time>2018-12-28T09:59:22Z</time>
      </trkpt>
      <trkpt lat="36.304620" lon="-116.416100">
        <ele>623.844</ele>
        <time>2018-12-28T09:59:42Z</time>
      </trkpt>
      <trkpt lat="36.304650" lon="-116.415210">
        <ele>623.469</ele>
        <time>2018-12-28T10:00:02Z</time>
      </trkpt>
      <trkpt lat="36.304647" lon="-116.415206">
        <ele>623.420</ele>
        <time>2018-12-28T10:00:22Z</time>
      </trkpt>
      <trkpt lat="36.304750" lon="-116.415250">
        <ele>623.484</ele>
        <time>2018-12-28T10:00:42Z</time>
      </trkpt>
      <trkpt lat="36.304830" lon="-116.415270">
        <ele>623.563</ele>
        <time>2018-12-28T10:01:02Z</time>
      </trkpt>
      <trkpt lat="36.305250" lon="-116.415420">
        <ele>623.612</ele>
        <time>2018-12-28T10:01:22Z</time>
      </trkpt>
      <trkpt lat="36.305590" lon="-116.415540">
        <ele>623.882</ele>
        <time>2018-12-28T10:01:42Z</time>
      </trkpt>
      <trkpt lat="36.306150" lon="-116.415730">
        <ele>624.194</ele>
        <time>2018-12-28T10:02:02Z</time>
      </trkpt>
      <trkpt lat="36.306520" lon="-116.415860">
        <ele>624.357</ele>
        <time>2018-12-28T10:02:22Z</time>
      </trkpt>
      <trkpt lat="36.307290" lon="-116.416120">
        <ele>624.522</ele>
        <time>2018-12-28T10:02:42Z</time>
      </trkpt>
      <trkpt lat="36.308850" lon="-116.416680">
        <ele>624.708</ele>
        <time>2018-12-28T10:03:02Z</time>
      </trkpt>
      <trkpt lat="36.308980" lon="-116.416720">
        <ele>624.732</ele>
        <time>2018-12-28T10:03:22Z</time>
      </trkpt>
      <trkpt lat="36.309250" lon="-116.416820">
        <ele>624.790</ele>
        <time>2018-12-28T10:03:42Z</time>
      </trkpt>
      <trkpt lat="36.309550" lon="-116.416930">
        <ele>624.885</ele>
        <time>2018-12-28T10:04:02Z</time>
      </trkpt>
      <trkpt lat="36.309840" lon="-116.417020">
        <ele>625.096</ele>
        <time>2018-12-28T10:04:22Z</time>
      </trkpt>
      <trkpt lat="36.310100" lon="-116.417120">
        <ele>625.180</ele>
        <time>2018-12-28T10:04:42Z</time>
      </trkpt>
      <trkpt lat="36.310250" lon="-116.417170">
        <ele>625.259</ele>
        <time>2018-12-28T10:05:02Z</time>
      </trkpt>
      <trkpt lat="36.310820" lon="-116.417370">
        <ele>625.548</ele>
        <time>2018-12-28T10:05:22Z</time>
      </trkpt>
      <trkpt lat="36.311240" lon="-116.417530">
        <ele>625.658</ele>
        <time>2018-12-28T10:05:42Z</time>
      </trkpt>
      <trkpt lat="36.311640" lon="-116.417660">
        <ele>625.631</ele>
        <time>2018-12-28T10:06:02Z</time>
      </trkpt>
      <trkpt lat="36.312090" lon="-116.417820">
        <ele>625.661</ele>
        <time>2018-12-28T10:06:22Z</time>
      </trkpt>
      <trkpt lat="36.312420" lon="-116.417940">
        <ele>625.607</ele>
        <time>2018-12-28T10:06:42Z</time>
      </trkpt>
      <trkpt lat="36.312920" lon="-116.418110">
        <ele>625.608</ele>
        <time>2018-12-28T10:07:02Z</time>
      </trkpt>
      <trkpt lat="36.313330" lon="-116.418260">
        <ele>625.676</ele>
        <time>2018-12-28T10:07:22Z</time>
      </trkpt>
      <trkpt lat="36.313720" lon="-116.418400">
        <ele>625.694</ele>
        <time>2018-12-28T10:07:42Z</time>
      </trkpt>
      <trkpt lat="36.314360" lon="-116.418630">
        <ele>625.789</ele>
        <time>2018-12-28T10:08:02Z</time>
      </trkpt>
      <trkpt lat="36.314620" lon="-116.418720">
        <ele>625.880</ele>
        <time>2018-12-28T10:08:22Z</time>
      </trkpt>
      <trkpt lat="36.314910" lon="-116.418820">
        <ele>625.974</ele>
        <time>2018-12-28T10:08:42Z</time>
      </trkpt>
      <trkpt lat="36.315330" lon="-116.418970">
        <ele>625.813</ele>
        <time>2018-12-28T10:09:02Z</time>
      </trkpt>
      <trkpt lat="36.315750" lon="-116.419120">
        <ele>625.942</ele>
        <time>2018-12-28T10:09:22Z</time>
      </trkpt>
      <trkpt lat="36.315980" lon="-116.419200">
        <ele>626.082</ele>
        <time>2018-12-28T10:09:42Z</time>
      </trkpt>
      <trkpt lat="36.316440" lon="-116.419360">
        <ele>626.114</ele>
        <time>2018-12-28T10:10:02Z</time>
      </trkpt>
      <trkpt lat="36.316590" lon="-116.419410">
        <ele>626.254</ele>
        <time>2018-12-28T10:10:22Z</time>
      </trkpt>
      <trkpt lat="36.316800" lon="-116.419490">
        <ele>626.309</ele>
        <time>2018-12-28T10:10:42Z</time>
      </trkpt>
      <trkpt lat="36.317580" lon="-116.419760">
        <ele>627.008</ele>
        <time>2018-12-28T10:11:02Z</time>
      </trkpt>
      <trkpt lat="36.318760" lon="-116.420170">
        <ele>627.944</ele>
        <time>2018-12-28T10:11:22Z</time>
      </trkpt>
      <trkpt lat="36.321490" lon="-116.421130">
        <ele>628.712</ele>
        <time>2018-12-28T10:11:42Z</time>
      </trkpt>
      <trkpt lat="36.322020" lon="-116.421320">
        <ele>628.777</ele>
        <time>2018-12-28T10:12:02Z</time>
      </trkpt>
      <trkpt lat="36.323050" lon="-116.421680">
        <ele>628.938</ele>
        <time>2018-12-28T10:12:22Z</time>
      </trkpt>
      <trkpt lat="36.325400" lon="-116.422510">
        <ele>629.442</ele>
        <time>2018-12-28T10:12:42Z</time>
      </trkpt>
      <trkpt lat="36.325800" lon="-116.422660">
        <ele>629.761</ele>
        <time>2018-12-28T10:13:02Z</time>
      </trkpt>
      <trkpt lat="36.326330" lon="-116.422850">
        <ele>630.010</ele>
        <time>2018-12-28T10:13:22Z</time>
      </trkpt>
      <trkpt lat="36.326610" lon="-116.422950">
        <ele>630.160</ele>
        <time>2018-12-28T10:13:42Z</time>
      </trkpt>
      <trkpt lat="36.326770" lon="-116.422990">
        <ele>630.268</ele>
        <time>2018-12-28T10:14:02Z</time>
      </trkpt>
      <trkpt lat="36.326900" lon="-116.423030">
        <ele>630.342</ele>
        <time>2018-12-28T10:14:22Z</time>
      </trkpt>
      <trkpt lat="36.327050" lon="-116.423060">
        <ele>630.326</ele>
        <time>2018-12-28T10:14:42Z</time>
      </trkpt>
      <trkpt lat="36.327210" lon="-116.423090">
        <ele>630.408</ele>
        <time>2018-12-28T10:15:02Z</time>
      </trkpt>
      <trkpt lat="36.327340" lon="-116.423110">
        <ele>630.569</ele>
        <time>2018-12-28T10:15:22Z</time>
      </trkpt>
      <trkpt lat="36.327470" lon="-116.423130">
        <ele>630.547</ele>
        <time>2018-12-28T10:15:42Z</time>
      </trkpt>
      <trkpt lat="36.327600" lon="-116.423140">
        <ele>630.522</ele>
        <time>2018-12-28T10:16:02Z</time>
      </trkpt>
      <trkpt lat="36.327710" lon="-116.423140">
        <ele>630.613</ele>
        <time>2018-12-28T10:16:22Z</time>
      </trkpt>
      <trkpt lat="36.327960" lon="-116.423150">
        <ele>630.727</ele>
        <time>2018-12-28T10:16:42Z</time>
      </trkpt>
      <trkpt lat="36.328160" lon="-116.423150">
        <ele>630.766</ele>
        <time>2018-12-28T10:17:02Z</time>
      </trkpt>
      <trkpt lat="36.329170" lon="-116.423140">
        <ele>631.095</ele>
        <time>2018-12-28T10:17:22Z</time>
      </trkpt>
      <trkpt lat="36.330380" lon="-116.423120">
        <ele>631.655</ele>
        <time>2018-12-28T10:17:42Z</time>
      </trkpt>
      <trkpt lat="36.331400" lon="-116.423110">
        <ele>631.774</ele>
        <time>2018-12-28T10:18:02Z</time>
      </trkpt>
      <trkpt lat="36.332270" lon="-116.423110">
        <ele>631.756</ele>
        <time>2018-12-28T10:18:22Z</time>
      </trkpt>
      <trkpt lat="36.332970" lon="-116.423100">
        <ele>632.121</ele>
        <time>2018-12-28T10:18:42Z</time>
      </trkpt>
      <trkpt lat="36.334630" lon="-116.423090">
        <ele>632.308</ele>
        <time>2018-12-28T10:19:02Z</time>
      </trkpt>
      <trkpt lat="36.335340" lon="-116.423080">
        <ele>632.310</ele>
        <time>2018-12-28T10:19:22Z</time>
      </trkpt>
      <trkpt lat="36.338510" lon="-116.423040">
        <ele>632.678</ele>
        <time>2018-12-28T10:19:42Z</time>
      </trkpt>
      <trkpt lat="36.341300" lon="-116.423010">
        <ele>634.843</ele>
        <time>2018-12-28T10:20:02Z</time>
      </trkpt>
      <trkpt lat="36.342740" lon="-116.423000">
        <ele>634.834</ele>
        <time>2018-12-28T10:20:22Z</time>
      </trkpt>
      <trkpt lat="36.343150" lon="-116.422990">
        <ele>634.918</ele>
        <time>2018-12-28T10:20:42Z</time>
      </trkpt>
      <trkpt lat="36.343690" lon="-116.422980">
        <ele>634.877</ele>
        <time>2018-12-28T10:21:02Z</time>
      </trkpt>
      <trkpt lat="36.344140" lon="-116.422980">
        <ele>634.846</ele>
        <time>2018-12-28T10:21:22Z</time>
      </trkpt>
      <trkpt lat="36.359510" lon="-116.422820">
        <ele>637.276</ele>
        <time>2018-12-28T10:21:42Z</time>
      </trkpt>
      <trkpt lat="36.361590" lon="-116.422800">
        <ele>637.663</ele>
        <time>2018-12-28T10:22:02Z</time>
      </trkpt>
      <trkpt lat="36.362810" lon="-116.422780">
        <ele>637.644</ele>
        <time>2018-12-28T10:22:22Z</time>
      </trkpt>
      <trkpt lat="36.364460" lon="-116.422760">
        <ele>637.518</ele>
        <time>2018-12-28T10:22:42Z</time>
      </trkpt>
      <trkpt lat="36.364880" lon="-116.422760">
        <ele>637.608</ele>
        <time>2018-12-28T10:23:02Z</time>
      </trkpt>
      <trkpt lat="36.365390" lon="-116.422750">
        <ele>637.769</ele>
        <time>2018-12-28T10:23:22Z</time>
      </trkpt>
      <trkpt lat="36.367360" lon="-116.422730">
        <ele>638.297</ele>
        <time>2018-12-28T10:23:42Z</time>
      </trkpt>
      <trkpt lat="36.369560" lon="-116.422710">
        <ele>639.232</ele>
        <time>2018-12-28T10:24:02Z</time>
      </trkpt>
      <trkpt lat="36.370090" lon="-116.422710">
        <ele>639.423</ele>
        <time>2018-12-28T10:24:22Z</time>
      </trkpt>
      <trkpt lat="36.371120" lon="-116.422700">
        <ele>639.817</ele>
        <time>2018-12-28T10:24:42Z</time>
      </trkpt>
      <trkpt lat="36.372660" lon="-116.422690">
        <ele>640.396</ele>
        <time>2018-12-28T10:25:02Z</time>
      </trkpt>
      <trkpt lat="36.373810" lon="-116.422670">
        <ele>640.735</ele>
        <time>2018-12-28T10:25:22Z</time>
      </trkpt>
      <trkpt lat="36.375580" lon="-116.422650">
        <ele>640.915</ele>
        <time>2018-12-28T10:25:42Z</time>
      </trkpt>
      <trkpt lat="36.376150" lon="-116.422650">
        <ele>640.952</ele>
        <time>2018-12-28T10:26:02Z</time>
      </trkpt>
      <trkpt lat="36.377950" lon="-116.422620">
        <ele>640.953</ele>
        <time>2018-12-28T10:26:22Z</time>
      </trkpt>
      <trkpt lat="36.378400" lon="-116.422620">
        <ele>640.908</ele>
        <time>2018-12-28T10:26:42Z</time>
      </trkpt>
      <trkpt lat="36.380230" lon="-116.422600">
        <ele>641.008</ele>
        <time>2018-12-28T10:27:02Z</time>
      </trkpt>
      <trkpt lat="36.383530" lon="-116.422560">
        <ele>641.388</ele>
        <time>2018-12-28T10:27:22Z</time>
      </trkpt>
      <trkpt lat="36.385780" lon="-116.422530">
        <ele>641.536</ele>
        <time>2018-12-28T10:27:42Z</time>
      </trkpt>
      <trkpt lat="36.386200" lon="-116.422530">
        <ele>641.541</ele>
        <time>2018-12-28T10:28:02Z</time>
      </trkpt>
      <trkpt lat="36.390070" lon="-116.422490">
        <ele>644.212</ele>
        <time>2018-12-28T10:28:22Z</time>
      </trkpt>
      <trkpt lat="36.390670" lon="-116.422480">
        <ele>644.396</ele>
        <time>2018-12-28T10:28:42Z</time>
      </trkpt>
      <trkpt lat="36.394370" lon="-116.422450">
        <ele>646.845</ele>
        <time>2018-12-28T10:29:02Z</time>
      </trkpt>
      <trkpt lat="36.399610" lon="-116.422390">
        <ele>652.224</ele>
        <time>2018-12-28T10:29:22Z</time>
      </trkpt>
      <trkpt lat="36.408430" lon="-116.422300">
        <ele>659.194</ele>
        <time>2018-12-28T10:29:42Z</time>
      </trkpt>
      <trkpt lat="36.408640" lon="-116.422300">
        <ele>659.317</ele>
        <time>2018-12-28T10:30:02Z</time>
      </trkpt>
      <trkpt lat="36.408642" lon="-116.422298">
        <ele>659.387</ele>
        <time>2018-12-28T10:30:22Z</time>
      </trkpt>
      <trkpt lat="36.409750" lon="-116.422280">
        <ele>660.315</ele>
        <time>2018-12-28T10:30:42Z</time>
      </trkpt>
      <trkpt lat="36.410930" lon="-116.422270">
        <ele>660.908</ele>
        <time>2018-12-28T10:31:02Z</time>
      </trkpt>
      <trkpt lat="36.411910" lon="-116.422260">
        <ele>661.354</ele>
        <time>2018-12-28T10:31:22Z</time>
      </trkpt>
      <trkpt lat="36.413240" lon="-116.422250">
        <ele>661.912</ele>
        <time>2018-12-28T10:31:42Z</time>
      </trkpt>
      <trkpt lat="36.414050" lon="-116.422230">
        <ele>662.667</ele>
        <time>2018-12-28T10:32:02Z</time>
      </trkpt>
      <trkpt lat="36.415830" lon="-116.422210">
        <ele>663.068</ele>
        <time>2018-12-28T10:32:22Z</time>
      </trkpt>
      <trkpt lat="36.417320" lon="-116.422200">
        <ele>663.652</ele>
        <time>2018-12-28T10:32:42Z</time>
      </trkpt>
      <trkpt lat="36.418800" lon="-116.422190">
        <ele>664.511</ele>
        <time>2018-12-28T10:33:02Z</time>
      </trkpt>
      <trkpt lat="36.420380" lon="-116.422170">
        <ele>665.540</ele>
        <time>2018-12-28T10:33:22Z</time>
      </trkpt>
      <trkpt lat="36.421410" lon="-116.422160">
        <ele>665.680</ele>
        <time>2018-12-28T10:33:42Z</time>
      </trkpt>
      <trkpt lat="36.422000" lon="-116.422160">
        <ele>665.524</ele>
        <time>2018-12-28T10:34:02Z</time>
      </trkpt>
      <trkpt lat="36.424040" lon="-116.422130">
        <ele>663.004</ele>
        <time>2018-12-28T10:34:22Z</time>
      </trkpt>
      <trkpt lat="36.424870" lon="-116.422120">
        <ele>665.414</ele>
        <time>2018-12-28T10:34:42Z</time>
      </trkpt>
      <trkpt lat="36.427090" lon="-116.422100">
        <ele>666.408</ele>
        <time>2018-12-28T10:35:02Z</time>
      </trkpt>
      <trkpt lat="36.427540" lon="-116.422100">
        <ele>667.825</ele>
        <time>2018-12-28T10:35:22Z</time>
      </trkpt>
      <trkpt lat="36.430520" lon="-116.422060">
        <ele>668.413</ele>
        <time>2018-12-28T10:35:42Z</time>
      </trkpt>
      <trkpt lat="36.431900" lon="-116.422040">
        <ele>668.838</ele>
        <time>2018-12-28T10:36:02Z</time>
      </trkpt>
      <trkpt lat="36.433620" lon="-116.422020">
        <ele>668.569</ele>
        <time>2018-12-28T10:36:22Z</time>
      </trkpt>
      <trkpt lat="36.434180" lon="-116.422020">
        <ele>669.053</ele>
        <time>2018-12-28T10:36:42Z</time>
      </trkpt>
      <trkpt lat="36.434590" lon="-116.422020">
        <ele>669.952</ele>
        <time>2018-12-28T10:37:02Z</time>
      </trkpt>
      <trkpt lat="36.435040" lon="-116.422020">
        <ele>670.641</ele>
        <time>2018-12-28T10:37:22Z</time>
      </trkpt>
      <trkpt lat="36.436150" lon="-116.422000">
        <ele>671.531</ele>
        <time>2018-12-28T10:37:42Z</time>
      </trkpt>
      <trkpt lat="36.437330" lon="-116.421990">
        <ele>672.681</ele>
        <time>2018-12-28T10:38:02Z</time>
      </trkpt>
      <trkpt lat="36.439260" lon="-116.421970">
        <ele>674.561</ele>
        <time>2018-12-28T10:38:22Z</time>
      </trkpt>
      <trkpt lat="36.441860" lon="-116.421940">
        <ele>676.317</ele>
        <time>2018-12-28T10:38:42Z</time>
      </trkpt>
      <trkpt lat="36.443070" lon="-116.421930">
        <ele>677.008</ele>
        <time>2018-12-28T10:39:02Z</time>
      </trkpt>
      <trkpt lat="36.445080" lon="-116.421910">
        <ele>678.681</ele>
        <time>2018-12-28T10:39:22Z</time>
      </trkpt>
      <trkpt lat="36.446530" lon="-116.421900">
        <ele>680.079</ele>
        <time>2018-12-28T10:39:42Z</time>
      </trkpt>
      <trkpt lat="36.447410" lon="-116.421880">
        <ele>680.514</ele>
        <time>2018-12-28T10:40:02Z</time>
      </trkpt>
      <trkpt lat="36.448020" lon="-116.421870">
        <ele>680.865</ele>
        <time>2018-12-28T10:40:22Z</time>
      </trkpt>
      <trkpt lat="36.450780" lon="-116.421850">
        <ele>680.129</ele>
        <time>2018-12-28T10:40:42Z</time>
      </trkpt>
      <trkpt lat="36.451920" lon="-116.421840">
        <ele>679.618</ele>
        <time>2018-12-28T10:41:02Z</time>
      </trkpt>
      <trkpt lat="36.453930" lon="-116.421810">
        <ele>679.887</ele>
        <time>2018-12-28T10:41:22Z</time>
      </trkpt>
      <trkpt lat="36.455000" lon="-116.421790">
        <ele>680.737</ele>
        <time>2018-12-28T10:41:42Z</time>
      </trkpt>
      <trkpt lat="36.457150" lon="-116.421780">
        <ele>681.052</ele>
        <time>2018-12-28T10:42:02Z</time>
      </trkpt>
      <trkpt lat="36.458990" lon="-116.421760">
        <ele>680.953</ele>
        <time>2018-12-28T10:42:22Z</time>
      </trkpt>
      <trkpt lat="36.460310" lon="-116.421740">
        <ele>680.908</ele>
        <time>2018-12-28T10:42:42Z</time>
      </trkpt>
      <trkpt lat="36.460800" lon="-116.421730">
        <ele>681.308</ele>
        <time>2018-12-28T10:43:02Z</time>
      </trkpt>
      <trkpt lat="36.466870" lon="-116.421670">
        <ele>683.688</ele>
        <time>2018-12-28T10:43:22Z</time>
      </trkpt>
      <trkpt lat="36.467770" lon="-116.421670">
        <ele>683.936</ele>
        <time>2018-12-28T10:43:42Z</time>
      </trkpt>
      <trkpt lat="36.468630" lon="-116.421660">
        <ele>684.221</ele>
        <time>2018-12-28T10:44:02Z</time>
      </trkpt>
      <trkpt lat="36.469530" lon="-116.421640">
        <ele>684.392</ele>
        <time>2018-12-28T10:44:22Z</time>
      </trkpt>
      <trkpt lat="36.471290" lon="-116.421620">
        <ele>684.036</ele>
        <time>2018-12-28T10:44:42Z</time>
      </trkpt>
      <trkpt lat="36.472390" lon="-116.421610">
        <ele>684.865</ele>
        <time>2018-12-28T10:45:02Z</time>
      </trkpt>
      <trkpt lat="36.474010" lon="-116.421600">
        <ele>686.264</ele>
        <time>2018-12-28T10:45:22Z</time>
      </trkpt>
      <trkpt lat="36.477960" lon="-116.421550">
        <ele>687.834</ele>
        <time>2018-12-28T10:45:42Z</time>
      </trkpt>
      <trkpt lat="36.480920" lon="-116.421520">
        <ele>689.749</ele>
        <time>2018-12-28T10:46:02Z</time>
      </trkpt>
      <trkpt lat="36.486610" lon="-116.421460">
        <ele>691.102</ele>
        <time>2018-12-28T10:46:22Z</time>
      </trkpt>
      <trkpt lat="36.487320" lon="-116.421450">
        <ele>691.422</ele>
        <time>2018-12-28T10:46:42Z</time>
      </trkpt>
      <trkpt lat="36.492510" lon="-116.421390">
        <ele>693.108</ele>
        <time>2018-12-28T10:47:02Z</time>
      </trkpt>
      <trkpt lat="36.493860" lon="-116.421380">
        <ele>693.937</ele>
        <time>2018-12-28T10:47:22Z</time>
      </trkpt>
      <trkpt lat="36.494580" lon="-116.421370">
        <ele>694.185</ele>
        <time>2018-12-28T10:47:42Z</time>
      </trkpt>
      <trkpt lat="36.494910" lon="-116.421370">
        <ele>694.340</ele>
        <time>2018-12-28T10:48:02Z</time>
      </trkpt>
      <trkpt lat="36.495260" lon="-116.421380">
        <ele>694.511</ele>
        <time>2018-12-28T10:48:22Z</time>
      </trkpt>
      <trkpt lat="36.495730" lon="-116.421380">
        <ele>694.665</ele>
        <time>2018-12-28T10:48:42Z</time>
      </trkpt>
      <trkpt lat="36.498740" lon="-116.421340">
        <ele>695.444</ele>
        <time>2018-12-28T10:49:02Z</time>
      </trkpt>
      <trkpt lat="36.501650" lon="-116.421320">
        <ele>697.883</ele>
        <time>2018-12-28T10:49:22Z</time>
      </trkpt>
      <trkpt lat="36.503130" lon="-116.421290">
        <ele>698.753</ele>
        <time>2018-12-28T10:49:42Z</time>
      </trkpt>
      <trkpt lat="36.503280" lon="-116.421280">
        <ele>698.861</ele>
        <time>2018-12-28T10:50:02Z</time>
      </trkpt>
      <trkpt lat="36.503370" lon="-116.421280">
        <ele>698.821</ele>
        <time>2018-12-28T10:50:22Z</time>
      </trkpt>
      <trkpt lat="36.503460" lon="-116.421270">
        <ele>698.913</ele>
        <time>2018-12-28T10:50:42Z</time>
      </trkpt>
      <trkpt lat="36.503890" lon="-116.421240">
        <ele>699.108</ele>
        <time>2018-12-28T10:51:02Z</time>
      </trkpt>
      <trkpt lat="36.504540" lon="-116.421190">
        <ele>699.569</ele>
        <time>2018-12-28T10:51:22Z</time>
      </trkpt>
      <trkpt lat="36.505210" lon="-116.421120">
        <ele>699.847</ele>
        <time>2018-12-28T10:51:42Z</time>
      </trkpt>
      <trkpt lat="36.508330" lon="-116.420820">
        <ele>702.162</ele>
        <time>2018-12-28T10:52:02Z</time>
      </trkpt>
      <trkpt lat="36.510880" lon="-116.420570">
        <ele>703.963</ele>
        <time>2018-12-28T10:52:22Z</time>
      </trkpt>
      <trkpt lat="36.514550" lon="-116.420220">
        <ele>705.917</ele>
        <time>2018-12-28T10:52:42Z</time>
      </trkpt>
      <trkpt lat="36.515920" lon="-116.420090">
        <ele>706.986</ele>
        <time>2018-12-28T10:53:02Z</time>
      </trkpt>
      <trkpt lat="36.518130" lon="-116.419870">
        <ele>708.485</ele>
        <time>2018-12-28T10:53:22Z</time>
      </trkpt>
      <trkpt lat="36.521810" lon="-116.419510">
        <ele>711.355</ele>
        <time>2018-12-28T10:53:42Z</time>
      </trkpt>
      <trkpt lat="36.522530" lon="-116.419410">
        <ele>711.811</ele>
        <time>2018-12-28T10:54:02Z</time>
      </trkpt>
      <trkpt lat="36.523600" lon="-116.419310">
        <ele>712.821</ele>
        <time>2018-12-28T10:54:22Z</time>
      </trkpt>
      <trkpt lat="36.524510" lon="-116.419220">
        <ele>713.703</ele>
        <time>2018-12-28T10:54:42Z</time>
      </trkpt>
      <trkpt lat="36.525390" lon="-116.419130">
        <ele>714.308</ele>
        <time>2018-12-28T10:55:02Z</time>
      </trkpt>
      <trkpt lat="36.527200" lon="-116.418970">
        <ele>715.884</ele>
        <time>2018-12-28T10:55:22Z</time>
      </trkpt>
      <trkpt lat="36.528140" lon="-116.418890">
        <ele>716.852</ele>
        <time>2018-12-28T10:55:42Z</time>
      </trkpt>
      <trkpt lat="36.529180" lon="-116.418800">
        <ele>717.427</ele>
        <time>2018-12-28T10:56:02Z</time>
      </trkpt>
      <trkpt lat="36.529450" lon="-116.418770">
        <ele>717.658</ele>
        <time>2018-12-28T10:56:22Z</time>
      </trkpt>
      <trkpt lat="36.531290" lon="-116.418590">
        <ele>718.852</ele>
        <time>2018-12-28T10:56:42Z</time>
      </trkpt>
      <trkpt lat="36.531890" lon="-116.418510">
        <ele>719.451</ele>
        <time>2018-12-28T10:57:02Z</time>
      </trkpt>
      <trkpt lat="36.539880" lon="-116.417730">
        <ele>724.430</ele>
        <time>2018-12-28T10:57:22Z</time>
      </trkpt>
      <trkpt lat="36.547460" lon="-116.416990">
        <ele>730.860</ele>
        <time>2018-12-28T10:57:42Z</time>
      </trkpt>
      <trkpt lat="36.550500" lon="-116.416700">
        <ele>732.852</ele>
        <time>2018-12-28T10:58:02Z</time>
      </trkpt>
      <trkpt lat="36.552290" lon="-116.416530">
        <ele>734.953</ele>
        <time>2018-12-28T10:58:22Z</time>
      </trkpt>
      <trkpt lat="36.552630" lon="-116.416500">
        <ele>735.208</ele>
        <time>2018-12-28T10:58:42Z</time>
      </trkpt>
      <trkpt lat="36.553270" lon="-116.416380">
        <ele>735.508</ele>
        <time>2018-12-28T10:59:02Z</time>
      </trkpt>
      <trkpt lat="36.553780" lon="-116.416300">
        <ele>735.758</ele>
        <time>2018-12-28T10:59:22Z</time>
      </trkpt>
      <trkpt lat="36.554100" lon="-116.416240">
        <ele>735.986</ele>
        <time>2018-12-28T10:59:42Z</time>
      </trkpt>
      <trkpt lat="36.554430" lon="-116.416180">
        <ele>736.231</ele>
        <time>2018-12-28T11:00:02Z</time>
      </trkpt>
      <trkpt lat="36.560230" lon="-116.415150">
        <ele>740.762</ele>
        <time>2018-12-28T11:00:22Z</time>
      </trkpt>
      <trkpt lat="36.562090" lon="-116.414830">
        <ele>742.146</ele>
        <time>2018-12-28T11:00:42Z</time>
      </trkpt>
      <trkpt lat="36.562970" lon="-116.414670">
        <ele>742.885</ele>
        <time>2018-12-28T11:01:02Z</time>
      </trkpt>
      <trkpt lat="36.563810" lon="-116.414510">
        <ele>743.624</ele>
        <time>2018-12-28T11:01:22Z</time>
      </trkpt>
      <trkpt lat="36.565500" lon="-116.414220">
        <ele>744.824</ele>
        <time>2018-12-28T11:01:42Z</time>
      </trkpt>
      <trkpt lat="36.568000" lon="-116.413780">
        <ele>747.117</ele>
        <time>2018-12-28T11:02:02Z</time>
      </trkpt>
      <trkpt lat="36.568930" lon="-116.413610">
        <ele>747.987</ele>
        <time>2018-12-28T11:02:22Z</time>
      </trkpt>
      <trkpt lat="36.570640" lon="-116.413320">
        <ele>749.915</ele>
        <time>2018-12-28T11:02:42Z</time>
      </trkpt>
      <trkpt lat="36.572310" lon="-116.413010">
        <ele>751.408</ele>
        <time>2018-12-28T11:03:02Z</time>
      </trkpt>
      <trkpt lat="36.575200" lon="-116.412500">
        <ele>754.014</ele>
        <time>2018-12-28T11:03:22Z</time>
      </trkpt>
      <trkpt lat="36.577360" lon="-116.412110">
        <ele>756.182</ele>
        <time>2018-12-28T11:03:42Z</time>
      </trkpt>
      <trkpt lat="36.579300" lon="-116.411770">
        <ele>757.377</ele>
        <time>2018-12-28T11:04:02Z</time>
      </trkpt>
      <trkpt lat="36.583450" lon="-116.411040">
        <ele>760.568</ele>
        <time>2018-12-28T11:04:22Z</time>
      </trkpt>
      <trkpt lat="36.589170" lon="-116.410040">
        <ele>765.322</ele>
        <time>2018-12-28T11:04:42Z</time>
      </trkpt>
      <trkpt lat="36.589500" lon="-116.409980">
        <ele>765.691</ele>
        <time>2018-12-28T11:05:02Z</time>
      </trkpt>
      <trkpt lat="36.591670" lon="-116.409610">
        <ele>767.330</ele>
        <time>2018-12-28T11:05:22Z</time>
      </trkpt>
      <trkpt lat="36.592170" lon="-116.409520">
        <ele>767.850</ele>
        <time>2018-12-28T11:05:42Z</time>
      </trkpt>
      <trkpt lat="36.592720" lon="-116.409420">
        <ele>768.161</ele>
        <time>2018-12-28T11:06:02Z</time>
      </trkpt>
      <trkpt lat="36.593070" lon="-116.409360">
        <ele>768.321</ele>
        <time>2018-12-28T11:06:22Z</time>
      </trkpt>
      <trkpt lat="36.593340" lon="-116.409320">
        <ele>768.513</ele>
        <time>2018-12-28T11:06:42Z</time>
      </trkpt>
      <trkpt lat="36.593440" lon="-116.409300">
        <ele>768.608</ele>
        <time>2018-12-28T11:07:02Z</time>
      </trkpt>
      <trkpt lat="36.593550" lon="-116.409270">
        <ele>768.739</ele>
        <time>2018-12-28T11:07:22Z</time>
      </trkpt>
      <trkpt lat="36.593660" lon="-116.409250">
        <ele>768.847</ele>
        <time>2018-12-28T11:07:42Z</time>
      </trkpt>
      <trkpt lat="36.594100" lon="-116.409180">
        <ele>769.132</ele>
        <time>2018-12-28T11:08:02Z</time>
      </trkpt>
      <trkpt lat="36.594310" lon="-116.409140">
        <ele>769.333</ele>
        <time>2018-12-28T11:08:22Z</time>
      </trkpt>
      <trkpt lat="36.594760" lon="-116.409060">
        <ele>769.667</ele>
        <time>2018-12-28T11:08:42Z</time>
      </trkpt>
      <trkpt lat="36.595300" lon="-116.408970">
        <ele>769.996</ele>
        <time>2018-12-28T11:09:02Z</time>
      </trkpt>
      <trkpt lat="36.595740" lon="-116.408890">
        <ele>770.345</ele>
        <time>2018-12-28T11:09:22Z</time>
      </trkpt>
      <trkpt lat="36.596410" lon="-116.408770">
        <ele>770.875</ele>
        <time>2018-12-28T11:09:42Z</time>
      </trkpt>
      <trkpt lat="36.597400" lon="-116.408590">
        <ele>771.534</ele>
        <time>2018-12-28T11:10:02Z</time>
      </trkpt>
      <trkpt lat="36.597880" lon="-116.408510">
        <ele>771.955</ele>
        <time>2018-12-28T11:10:22Z</time>
      </trkpt>
      <trkpt lat="36.598270" lon="-116.408430">
        <ele>772.010</ele>
        <time>2018-12-28T11:10:42Z</time>
      </trkpt>
      <trkpt lat="36.598920" lon="-116.408320">
        <ele>772.808</ele>
        <time>2018-12-28T11:11:02Z</time>
      </trkpt>
      <trkpt lat="36.599920" lon="-116.408140">
        <ele>774.176</ele>
        <time>2018-12-28T11:11:22Z</time>
      </trkpt>
      <trkpt lat="36.601340" lon="-116.407890">
        <ele>774.974</ele>
        <time>2018-12-28T11:11:42Z</time>
      </trkpt>
      <trkpt lat="36.603220" lon="-116.407550">
        <ele>776.929</ele>
        <time>2018-12-28T11:12:02Z</time>
      </trkpt>
      <trkpt lat="36.603880" lon="-116.407440">
        <ele>777.410</ele>
        <time>2018-12-28T11:12:22Z</time>
      </trkpt>
      <trkpt lat="36.604850" lon="-116.407260">
        <ele>778.064</ele>
        <time>2018-12-28T11:12:42Z</time>
      </trkpt>
      <trkpt lat="36.605940" lon="-116.407070">
        <ele>778.873</ele>
        <time>2018-12-28T11:13:02Z</time>
      </trkpt>
      <trkpt lat="36.606700" lon="-116.406930">
        <ele>779.492</ele>
        <time>2018-12-28T11:13:22Z</time>
      </trkpt>
      <trkpt lat="36.607850" lon="-116.406730">
        <ele>780.222</ele>
        <time>2018-12-28T11:13:42Z</time>
      </trkpt>
      <trkpt lat="36.608360" lon="-116.406640">
        <ele>780.624</ele>
        <time>2018-12-28T11:14:02Z</time>
      </trkpt>
      <trkpt lat="36.608900" lon="-116.406540">
        <ele>781.004</ele>
        <time>2018-12-28T11:14:22Z</time>
      </trkpt>
      <trkpt lat="36.609990" lon="-116.406350">
        <ele>781.914</ele>
        <time>2018-12-28T11:14:42Z</time>
      </trkpt>
      <trkpt lat="36.612250" lon="-116.405940">
        <ele>783.508</ele>
        <time>2018-12-28T11:15:02Z</time>
      </trkpt>
      <trkpt lat="36.612750" lon="-116.405860">
        <ele>783.965</ele>
        <time>2018-12-28T11:15:22Z</time>
      </trkpt>
      <trkpt lat="36.614050" lon="-116.405630">
        <ele>784.923</ele>
        <time>2018-12-28T11:15:42Z</time>
      </trkpt>
      <trkpt lat="36.615240" lon="-116.405410">
        <ele>785.828</ele>
        <time>2018-12-28T11:16:02Z</time>
      </trkpt>
      <trkpt lat="36.615800" lon="-116.405320">
        <ele>786.339</ele>
        <time>2018-12-28T11:16:22Z</time>
      </trkpt>
      <trkpt lat="36.619220" lon="-116.404700">
        <ele>788.923</ele>
        <time>2018-12-28T11:16:42Z</time>
      </trkpt>
      <trkpt lat="36.619440" lon="-116.404660">
        <ele>789.182</ele>
        <time>2018-12-28T11:17:02Z</time>
      </trkpt>
      <trkpt lat="36.619870" lon="-116.404590">
        <ele>789.591</ele>
        <time>2018-12-28T11:17:22Z</time>
      </trkpt>
      <trkpt lat="36.620650" lon="-116.404450">
        <ele>790.091</ele>
        <time>2018-12-28T11:17:42Z</time>
      </trkpt>
      <trkpt lat="36.621840" lon="-116.404240">
        <ele>791.167</ele>
        <time>2018-12-28T11:18:02Z</time>
      </trkpt>
      <trkpt lat="36.622610" lon="-116.404100">
        <ele>791.981</ele>
        <time>2018-12-28T11:18:22Z</time>
      </trkpt>
      <trkpt lat="36.623160" lon="-116.404000">
        <ele>792.519</ele>
        <time>2018-12-28T11:18:42Z</time>
      </trkpt>
      <trkpt lat="36.623710" lon="-116.403910">
        <ele>793.008</ele>
        <time>2018-12-28T11:19:02Z</time>
      </trkpt>
      <trkpt lat="36.624700" lon="-116.403730">
        <ele>793.899</ele>
        <time>2018-12-28T11:19:22Z</time>
      </trkpt>
      <trkpt lat="36.625020" lon="-116.403670">
        <ele>794.267</ele>
        <time>2018-12-28T11:19:42Z</time>
      </trkpt>
      <trkpt lat="36.625680" lon="-116.403550">
        <ele>794.522</ele>
        <time>2018-12-28T11:20:02Z</time>
      </trkpt>
      <trkpt lat="36.626110" lon="-116.403470">
        <ele>794.993</ele>
        <time>2018-12-28T11:20:22Z</time>
      </trkpt>
      <trkpt lat="36.626670" lon="-116.403370">
        <ele>795.537</ele>
        <time>2018-12-28T11:20:42Z</time>
      </trkpt>
      <trkpt lat="36.627210" lon="-116.403280">
        <ele>796.026</ele>
        <time>2018-12-28T11:21:02Z</time>
      </trkpt>
      <trkpt lat="36.627870" lon="-116.403160">
        <ele>796.675</ele>
        <time>2018-12-28T11:21:22Z</time>
      </trkpt>
      <trkpt lat="36.628390" lon="-116.403070">
        <ele>797.135</ele>
        <time>2018-12-28T11:21:42Z</time>
      </trkpt>
      <trkpt lat="36.628860" lon="-116.402990">
        <ele>797.542</ele>
        <time>2018-12-28T11:22:02Z</time>
      </trkpt>
      <trkpt lat="36.629400" lon="-116.402890">
        <ele>798.122</ele>
        <time>2018-12-28T11:22:22Z</time>
      </trkpt>
      <trkpt lat="36.630180" lon="-116.402750">
        <ele>798.714</ele>
        <time>2018-12-28T11:22:42Z</time>
      </trkpt>
      <trkpt lat="36.631170" lon="-116.402570">
        <ele>799.508</ele>
        <time>2018-12-28T11:23:02Z</time>
      </trkpt>
      <trkpt lat="36.632040" lon="-116.402420">
        <ele>800.337</ele>
        <time>2018-12-28T11:23:22Z</time>
      </trkpt>
      <trkpt lat="36.632590" lon="-116.402320">
        <ele>800.755</ele>
        <time>2018-12-28T11:23:42Z</time>
      </trkpt>
      <trkpt lat="36.633170" lon="-116.402220">
        <ele>801.210</ele>
        <time>2018-12-28T11:24:02Z</time>
      </trkpt>
      <trkpt lat="36.634120" lon="-116.402050">
        <ele>801.991</ele>
        <time>2018-12-28T11:24:22Z</time>
      </trkpt>
      <trkpt lat="36.634580" lon="-116.401950">
        <ele>802.345</ele>
        <time>2018-12-28T11:24:42Z</time>
      </trkpt>
      <trkpt lat="36.634850" lon="-116.401900">
        <ele>802.524</ele>
        <time>2018-12-28T11:25:02Z</time>
      </trkpt>
      <trkpt lat="36.635870" lon="-116.401720">
        <ele>803.633</ele>
        <time>2018-12-28T11:25:22Z</time>
      </trkpt>
      <trkpt lat="36.636530" lon="-116.401600">
        <ele>804.343</ele>
        <time>2018-12-28T11:25:42Z</time>
      </trkpt>
      <trkpt lat="36.637080" lon="-116.401500">
        <ele>804.895</ele>
        <time>2018-12-28T11:26:02Z</time>
      </trkpt>
      <trkpt lat="36.637850" lon="-116.401360">
        <ele>805.649</ele>
        <time>2018-12-28T11:26:22Z</time>
      </trkpt>
      <trkpt lat="36.638290" lon="-116.401290">
        <ele>806.123</ele>
        <time>2018-12-28T11:26:42Z</time>
      </trkpt>
      <trkpt lat="36.638410" lon="-116.401270">
        <ele>806.208</ele>
        <time>2018-12-28T11:27:02Z</time>
      </trkpt>
      <trkpt lat="36.639570" lon="-116.401060">
        <ele>807.532</ele>
        <time>2018-12-28T11:27:22Z</time>
      </trkpt>
      <trkpt lat="36.639950" lon="-116.400990">
        <ele>807.920</ele>
        <time>2018-12-28T11:27:42Z</time>
      </trkpt>
      <trkpt lat="36.641690" lon="-116.400680">
        <ele>809.585</ele>
        <time>2018-12-28T11:28:02Z</time>
      </trkpt>
      <trkpt lat="36.642220" lon="-116.400590">
        <ele>810.036</ele>
        <time>2018-12-28T11:28:22Z</time>
      </trkpt>
      <trkpt lat="36.643080" lon="-116.400440">
        <ele>811.090</ele>
        <time>2018-12-28T11:28:42Z</time>
      </trkpt>
      <trkpt lat="36.643760" lon="-116.400300">
        <ele>811.799</ele>
        <time>2018-12-28T11:29:02Z</time>
      </trkpt>
      <trkpt lat="36.643762" lon="-116.400302">
        <ele>811.718</ele>
        <time>2018-12-28T11:29:22Z</time>
      </trkpt>
      <trkpt lat="36.643550" lon="-116.399430">
        <ele>811.318</ele>
        <time>2018-12-28T11:29:42Z</time>
      </trkpt>
      <trkpt lat="36.643450" lon="-116.399010">
        <ele>811.254</ele>
        <time>2018-12-28T11:30:02Z</time>
      </trkpt>
      <trkpt lat="36.643360" lon="-116.398630">
        <ele>811.256</ele>
        <time>2018-12-28T11:30:22Z</time>
      </trkpt>
      <trkpt lat="36.643300" lon="-116.398390">
        <ele>811.211</ele>
        <time>2018-12-28T11:30:42Z</time>
      </trkpt>
      <trkpt lat="36.643180" lon="-116.397910">
        <ele>811.208</ele>
        <time>2018-12-28T11:31:02Z</time>
      </trkpt>
      <trkpt lat="36.643050" lon="-116.397390">
        <ele>811.228</ele>
        <time>2018-12-28T11:31:22Z</time>
      </trkpt>
      <trkpt lat="36.642960" lon="-116.397030">
        <ele>811.276</ele>
        <time>2018-12-28T11:31:42Z</time>
      </trkpt>
      <trkpt lat="36.642810" lon="-116.396460">
        <ele>811.251</ele>
        <time>2018-12-28T11:32:02Z</time>
      </trkpt>
      <trkpt lat="36.642680" lon="-116.395880">
        <ele>811.122</ele>
        <time>2018-12-28T11:32:22Z</time>
      </trkpt>
      <trkpt lat="36.642240" lon="-116.393970">
        <ele>810.796</ele>
        <time>2018-12-28T11:32:42Z</time>
      </trkpt>
      <trkpt lat="36.642230" lon="-116.393960">
        <ele>810.715</ele>
        <time>2018-12-28T11:33:02Z</time>
      </trkpt>
      <trkpt lat="36.642230" lon="-116.393950">
        <ele>810.764</ele>
        <time>2018-12-28T11:33:22Z</time>
      </trkpt>
      <trkpt lat="36.642230" lon="-116.393940">
        <ele>810.764</ele>
        <time>2018-12-28T11:33:42Z</time>
      </trkpt>
      <trkpt lat="36.642230" lon="-116.393930">
        <ele>810.756</ele>
        <time>2018-12-28T11:34:02Z</time>
      </trkpt>
      <trkpt lat="36.642230" lon="-116.393920">
        <ele>810.759</ele>
        <time>2018-12-28T11:34:22Z</time>
      </trkpt>
      <trkpt lat="36.642230" lon="-116.393910">
        <ele>810.714</ele>
        <time>2018-12-28T11:34:42Z</time>
      </trkpt>
      <trkpt lat="36.642240" lon="-116.393900">
        <ele>810.708</ele>
        <time>2018-12-28T11:35:02Z</time>
      </trkpt>
      <trkpt lat="36.642060" lon="-116.393150">
        <ele>810.778</ele>
        <time>2018-12-28T11:35:22Z</time>
      </trkpt>
      <trkpt lat="36.641730" lon="-116.391800">
        <ele>810.676</ele>
        <time>2018-12-28T11:35:42Z</time>
      </trkpt>
      <trkpt lat="36.641490" lon="-116.390820">
        <ele>810.681</ele>
        <time>2018-12-28T11:36:02Z</time>
      </trkpt>
      <trkpt lat="36.641260" lon="-116.389890">
        <ele>810.912</ele>
        <time>2018-12-28T11:36:22Z</time>
      </trkpt>
      <trkpt lat="36.641100" lon="-116.389270">
        <ele>811.056</ele>
        <time>2018-12-28T11:36:42Z</time>
      </trkpt>
      <trkpt lat="36.640960" lon="-116.388680">
        <ele>810.915</ele>
        <time>2018-12-28T11:37:02Z</time>
      </trkpt>
      <trkpt lat="36.640910" lon="-116.388600">
        <ele>810.994</ele>
        <time>2018-12-28T11:37:22Z</time>
      </trkpt>
      <trkpt lat="36.640910" lon="-116.388580">
        <ele>810.994</ele>
        <time>2018-12-28T11:37:42Z</time>
      </trkpt>
      <trkpt lat="36.640890" lon="-116.388530">
        <ele>810.993</ele>
        <time>2018-12-28T11:38:02Z</time>
      </trkpt>
      <trkpt lat="36.640860" lon="-116.388420">
        <ele>810.865</ele>
        <time>2018-12-28T11:38:22Z</time>
      </trkpt>
      <trkpt lat="36.640820" lon="-116.388260">
        <ele>810.821</ele>
        <time>2018-12-28T11:38:42Z</time>
      </trkpt>
      <trkpt lat="36.640670" lon="-116.387660">
        <ele>810.808</ele>
        <time>2018-12-28T11:39:02Z</time>
      </trkpt>
      <trkpt lat="36.640380" lon="-116.386460">
        <ele>811.052</ele>
        <time>2018-12-28T11:39:22Z</time>
      </trkpt>
      <trkpt lat="36.640070" lon="-116.385150">
        <ele>811.090</ele>
        <time>2018-12-28T11:39:42Z</time>
      </trkpt>
      <trkpt lat="36.640040" lon="-116.385020">
        <ele>811.035</ele>
        <time>2018-12-28T11:40:02Z</time>
      </trkpt>
      <trkpt lat="36.639950" lon="-116.384650">
        <ele>811.116</ele>
        <time>2018-12-28T11:40:22Z</time>
      </trkpt>
      <trkpt lat="36.639870" lon="-116.384310">
        <ele>810.990</ele>
        <time>2018-12-28T11:40:42Z</time>
      </trkpt>
      <trkpt lat="36.639820" lon="-116.384100">
        <ele>810.989</ele>
        <time>2018-12-28T11:41:02Z</time>
      </trkpt>
      <trkpt lat="36.639780" lon="-116.383970">
        <ele>811.038</ele>
        <time>2018-12-28T11:41:22Z</time>
      </trkpt>
      <trkpt lat="36.639770" lon="-116.383930">
        <ele>811.088</ele>
        <time>2018-12-28T11:41:42Z</time>
      </trkpt>
      <trkpt lat="36.639770" lon="-116.383900">
        <ele>811.096</ele>
        <time>2018-12-28T11:42:02Z</time>
      </trkpt>
      <trkpt lat="36.639760" lon="-116.383860">
        <ele>811.031</ele>
        <time>2018-12-28T11:42:22Z</time>
      </trkpt>
      <trkpt lat="36.639760" lon="-116.383800">
        <ele>811.024</ele>
        <time>2018-12-28T11:42:42Z</time>
      </trkpt>
      <trkpt lat="36.639380" lon="-116.382280">
        <ele>811.208</ele>
        <time>2018-12-28T11:43:02Z</time>
      </trkpt>
      <trkpt lat="36.639010" lon="-116.380780">
        <ele>811.292</ele>
        <time>2018-12-28T11:43:22Z</time>
      </trkpt>
      <trkpt lat="36.638500" lon="-116.378710">
        <ele>811.070</ele>
        <time>2018-12-28T11:43:42Z</time>
      </trkpt>
      <trkpt lat="36.638180" lon="-116.377390">
        <ele>810.865</ele>
        <time>2018-12-28T11:44:02Z</time>
      </trkpt>
      <trkpt lat="36.637940" lon="-116.376420">
        <ele>811.086</ele>
        <time>2018-12-28T11:44:22Z</time>
      </trkpt>
      <trkpt lat="36.637870" lon="-116.376110">
        <ele>811.130</ele>
        <time>2018-12-28T11:44:42Z</time>
      </trkpt>
      <trkpt lat="36.637440" lon="-116.374370">
        <ele>812.999</ele>
        <time>2018-12-28T11:45:02Z</time>
      </trkpt>
      <trkpt lat="36.637160" lon="-116.373220">
        <ele>814.598</ele>
        <time>2018-12-28T11:45:22Z</time>
      </trkpt>
      <trkpt lat="36.636930" lon="-116.372320">
        <ele>815.458</ele>
        <time>2018-12-28T11:45:42Z</time>
      </trkpt>
      <trkpt lat="36.636710" lon="-116.371420">
        <ele>816.339</ele>
        <time>2018-12-28T11:46:02Z</time>
      </trkpt>
      <trkpt lat="36.636460" lon="-116.370370">
        <ele>817.401</ele>
        <time>2018-12-28T11:46:22Z</time>
      </trkpt>
      <trkpt lat="36.636260" lon="-116.369570">
        <ele>818.221</ele>
        <time>2018-12-28T11:46:42Z</time>
      </trkpt>
      <trkpt lat="36.635970" lon="-116.368410">
        <ele>819.708</ele>
        <time>2018-12-28T11:47:02Z</time>
      </trkpt>
      <trkpt lat="36.635690" lon="-116.367240">
        <ele>820.886</ele>
        <time>2018-12-28T11:47:22Z</time>
      </trkpt>
      <trkpt lat="36.635430" lon="-116.366190">
        <ele>822.324</ele>
        <time>2018-12-28T11:47:42Z</time>
      </trkpt>
      <trkpt lat="36.635140" lon="-116.365020">
        <ele>823.549</ele>
        <time>2018-12-28T11:48:02Z</time>
      </trkpt>
      <trkpt lat="36.634950" lon="-116.364230">
        <ele>824.540</ele>
        <time>2018-12-28T11:48:22Z</time>
      </trkpt>
      <trkpt lat="36.634640" lon="-116.362950">
        <ele>826.434</ele>
        <time>2018-12-28T11:48:42Z</time>
      </trkpt>
      <trkpt lat="36.634510" lon="-116.362430">
        <ele>826.943</ele>
        <time>2018-12-28T11:49:02Z</time>
      </trkpt>
      <trkpt lat="36.634220" lon="-116.361260">
        <ele>829.192</ele>
        <time>2018-12-28T11:49:22Z</time>
      </trkpt>
      <trkpt lat="36.633980" lon="-116.360300">
        <ele>830.282</ele>
        <time>2018-12-28T11:49:42Z</time>
      </trkpt>
      <trkpt lat="36.633670" lon="-116.359070">
        <ele>832.849</ele>
        <time>2018-12-28T11:50:02Z</time>
      </trkpt>
      <trkpt lat="36.633540" lon="-116.358550">
        <ele>833.802</ele>
        <time>2018-12-28T11:50:22Z</time>
      </trkpt>
      <trkpt lat="36.633310" lon="-116.357610">
        <ele>835.922</ele>
        <time>2018-12-28T11:50:42Z</time>
      </trkpt>
      <trkpt lat="36.632990" lon="-116.356330">
        <ele>838.008</ele>
        <time>2018-12-28T11:51:02Z</time>
      </trkpt>
      <trkpt lat="36.632770" lon="-116.355430">
        <ele>838.967</ele>
        <time>2018-12-28T11:51:22Z</time>
      </trkpt>
      <trkpt lat="36.632580" lon="-116.354660">
        <ele>840.295</ele>
        <time>2018-12-28T11:51:42Z</time>
      </trkpt>
      <trkpt lat="36.632450" lon="-116.354120">
        <ele>841.290</ele>
        <time>2018-12-28T11:52:02Z</time>
      </trkpt>
      <trkpt lat="36.632330" lon="-116.353600">
        <ele>841.811</ele>
        <time>2018-12-28T11:52:22Z</time>
      </trkpt>
      <trkpt lat="36.632240" lon="-116.353230">
        <ele>842.355</ele>
        <time>2018-12-28T11:52:42Z</time>
      </trkpt>
      <trkpt lat="36.632160" lon="-116.352810">
        <ele>843.014</ele>
        <time>2018-12-28T11:53:02Z</time>
      </trkpt>
      <trkpt lat="36.632100" lon="-116.352490">
        <ele>843.493</ele>
        <time>2018-12-28T11:53:22Z</time>
      </trkpt>
      <trkpt lat="36.632040" lon="-116.352150">
        <ele>843.973</ele>
        <time>2018-12-28T11:53:42Z</time>
      </trkpt>
      <trkpt lat="36.631970" lon="-116.351740">
        <ele>844.328</ele>
        <time>2018-12-28T11:54:02Z</time>
      </trkpt>
      <trkpt lat="36.631940" lon="-116.351490">
        <ele>844.589</ele>
        <time>2018-12-28T11:54:22Z</time>
      </trkpt>
      <trkpt lat="36.631900" lon="-116.351220">
        <ele>844.617</ele>
        <time>2018-12-28T11:54:42Z</time>
      </trkpt>
      <trkpt lat="36.631890" lon="-116.351100">
        <ele>844.708</ele>
        <time>2018-12-28T11:55:02Z</time>
      </trkpt>
      <trkpt lat="36.631850" lon="-116.350820">
        <ele>844.955</ele>
        <time>2018-12-28T11:55:22Z</time>
      </trkpt>
      <trkpt lat="36.631810" lon="-116.350400">
        <ele>845.333</ele>
        <time>2018-12-28T11:55:42Z</time>
      </trkpt>
      <trkpt lat="36.631780" lon="-116.350010">
        <ele>846.138</ele>
        <time>2018-12-28T11:56:02Z</time>
      </trkpt>
      <trkpt lat="36.631750" lon="-116.349720">
        <ele>846.669</ele>
        <time>2018-12-28T11:56:22Z</time>
      </trkpt>
      <trkpt lat="36.631740" lon="-116.349600">
        <ele>846.823</ele>
        <time>2018-12-28T11:56:42Z</time>
      </trkpt>
      <trkpt lat="36.631730" lon="-116.349430">
        <ele>847.042</ele>
        <time>2018-12-28T11:57:02Z</time>
      </trkpt>
      <trkpt lat="36.631720" lon="-116.349190">
        <ele>847.331</ele>
        <time>2018-12-28T11:57:22Z</time>
      </trkpt>
      <trkpt lat="36.631710" lon="-116.349040">
        <ele>847.431</ele>
        <time>2018-12-28T11:57:42Z</time>
      </trkpt>
      <trkpt lat="36.631710" lon="-116.348780">
        <ele>847.699</ele>
        <time>2018-12-28T11:58:02Z</time>
      </trkpt>
      <trkpt lat="36.631700" lon="-116.348220">
        <ele>847.907</ele>
        <time>2018-12-28T11:58:22Z</time>
      </trkpt>
      <trkpt lat="36.631690" lon="-116.347280">
        <ele>849.227</ele>
        <time>2018-12-28T11:58:42Z</time>
      </trkpt>
      <trkpt lat="36.631690" lon="-116.346010">
        <ele>851.108</ele>
        <time>2018-12-28T11:59:02Z</time>
      </trkpt>
      <trkpt lat="36.631690" lon="-116.345010">
        <ele>851.512</ele>
        <time>2018-12-28T11:59:22Z</time>
      </trkpt>
      <trkpt lat="36.631670" lon="-116.340750">
        <ele>856.780</ele>
        <time>2018-12-28T11:59:42Z</time>
      </trkpt>
      <trkpt lat="36.631670" lon="-116.339190">
        <ele>857.275</ele>
        <time>2018-12-28T12:00:02Z</time>
      </trkpt>
      <trkpt lat="36.631660" lon="-116.337610">
        <ele>859.486</ele>
        <time>2018-12-28T12:00:22Z</time>
      </trkpt>
      <trkpt lat="36.631660" lon="-116.335980">
        <ele>861.080</ele>
        <time>2018-12-28T12:00:42Z</time>
      </trkpt>
      <trkpt lat="36.631650" lon="-116.333390">
        <ele>862.439</ele>
        <time>2018-12-28T12:01:02Z</time>
      </trkpt>
      <trkpt lat="36.631640" lon="-116.330950">
        <ele>864.638</ele>
        <time>2018-12-28T12:01:22Z</time>
      </trkpt>
      <trkpt lat="36.631630" lon="-116.329040">
        <ele>866.398</ele>
        <time>2018-12-28T12:01:42Z</time>
      </trkpt>
      <trkpt lat="36.631630" lon="-116.327330">
        <ele>867.521</ele>
        <time>2018-12-28T12:02:02Z</time>
      </trkpt>
      <trkpt lat="36.631620" lon="-116.326720">
        <ele>868.041</ele>
        <time>2018-12-28T12:02:22Z</time>
      </trkpt>
      <trkpt lat="36.631620" lon="-116.326310">
        <ele>868.405</ele>
        <time>2018-12-28T12:02:42Z</time>
      </trkpt>
      <trkpt lat="36.631620" lon="-116.325630">
        <ele>869.108</ele>
        <time>2018-12-28T12:03:02Z</time>
      </trkpt>
      <trkpt lat="36.631620" lon="-116.324460">
        <ele>869.855</ele>
        <time>2018-12-28T12:03:22Z</time>
      </trkpt>
      <trkpt lat="36.631610" lon="-116.323590">
        <ele>870.343</ele>
        <time>2018-12-28T12:03:42Z</time>
      </trkpt>
      <trkpt lat="36.631610" lon="-116.323180">
        <ele>870.618</ele>
        <time>2018-12-28T12:04:02Z</time>
      </trkpt>
      <trkpt lat="36.631610" lon="-116.323040">
        <ele>870.819</ele>
        <time>2018-12-28T12:04:22Z</time>
      </trkpt>
      <trkpt lat="36.631600" lon="-116.322850">
        <ele>871.043</ele>
        <time>2018-12-28T12:04:42Z</time>
      </trkpt>
      <trkpt lat="36.631600" lon="-116.322650">
        <ele>871.222</ele>
        <time>2018-12-28T12:05:02Z</time>
      </trkpt>
      <trkpt lat="36.631590" lon="-116.322480">
        <ele>871.531</ele>
        <time>2018-12-28T12:05:22Z</time>
      </trkpt>
      <trkpt lat="36.631580" lon="-116.322280">
        <ele>871.861</ele>
        <time>2018-12-28T12:05:42Z</time>
      </trkpt>
      <trkpt lat="36.631570" lon="-116.322120">
        <ele>872.126</ele>
        <time>2018-12-28T12:06:02Z</time>
      </trkpt>
      <trkpt lat="36.631560" lon="-116.321950">
        <ele>872.347</ele>
        <time>2018-12-28T12:06:22Z</time>
      </trkpt>
      <trkpt lat="36.631550" lon="-116.321830">
        <ele>872.511</ele>
        <time>2018-12-28T12:06:42Z</time>
      </trkpt>
      <trkpt lat="36.631540" lon="-116.321690">
        <ele>872.508</ele>
        <time>2018-12-28T12:07:02Z</time>
      </trkpt>
      <trkpt lat="36.631530" lon="-116.321550">
        <ele>872.665</ele>
        <time>2018-12-28T12:07:22Z</time>
      </trkpt>
      <trkpt lat="36.631510" lon="-116.321400">
        <ele>872.583</ele>
        <time>2018-12-28T12:07:42Z</time>
      </trkpt>
      <trkpt lat="36.631500" lon="-116.321270">
        <ele>872.678</ele>
        <time>2018-12-28T12:08:02Z</time>
      </trkpt>
      <trkpt lat="36.631480" lon="-116.321120">
        <ele>872.599</ele>
        <time>2018-12-28T12:08:22Z</time>
      </trkpt>
      <trkpt lat="36.631460" lon="-116.320960">
        <ele>872.623</ele>
        <time>2018-12-28T12:08:42Z</time>
      </trkpt>
      <trkpt lat="36.631430" lon="-116.320790">
        <ele>872.742</ele>
        <time>2018-12-28T12:09:02Z</time>
      </trkpt>
      <trkpt lat="36.631400" lon="-116.320540">
        <ele>872.951</ele>
        <time>2018-12-28T12:09:22Z</time>
      </trkpt>
      <trkpt lat="36.631350" lon="-116.320260">
        <ele>873.491</ele>
        <time>2018-12-28T12:09:42Z</time>
      </trkpt>
      <trkpt lat="36.631290" lon="-116.319970">
        <ele>873.978</ele>
        <time>2018-12-28T12:10:02Z</time>
      </trkpt>
      <trkpt lat="36.631240" lon="-116.319700">
        <ele>873.933</ele>
        <time>2018-12-28T12:10:22Z</time>
      </trkpt>
      <trkpt lat="36.631170" lon="-116.319390">
        <ele>873.926</ele>
        <time>2018-12-28T12:10:42Z</time>
      </trkpt>
      <trkpt lat="36.631110" lon="-116.319140">
        <ele>873.608</ele>
        <time>2018-12-28T12:11:02Z</time>
      </trkpt>
      <trkpt lat="36.631070" lon="-116.319000">
        <ele>873.420</ele>
        <time>2018-12-28T12:11:22Z</time>
      </trkpt>
      <trkpt lat="36.631010" lon="-116.318780">
        <ele>873.158</ele>
        <time>2018-12-28T12:11:42Z</time>
      </trkpt>
      <trkpt lat="36.630930" lon="-116.318470">
        <ele>872.753</ele>
        <time>2018-12-28T12:12:02Z</time>
      </trkpt>
      <trkpt lat="36.630840" lon="-116.318190">
        <ele>872.674</ele>
        <time>2018-12-28T12:12:22Z</time>
      </trkpt>
      <trkpt lat="36.630760" lon="-116.317950">
        <ele>872.698</ele>
        <time>2018-12-28T12:12:42Z</time>
      </trkpt>
      <trkpt lat="36.630680" lon="-116.317730">
        <ele>872.697</ele>
        <time>2018-12-28T12:13:02Z</time>
      </trkpt>
      <trkpt lat="36.630590" lon="-116.317480">
        <ele>872.546</ele>
        <time>2018-12-28T12:13:22Z</time>
      </trkpt>
      <trkpt lat="36.630500" lon="-116.317220">
        <ele>872.356</ele>
        <time>2018-12-28T12:13:42Z</time>
      </trkpt>
      <trkpt lat="36.630380" lon="-116.316920">
        <ele>872.098</ele>
        <time>2018-12-28T12:14:02Z</time>
      </trkpt>
      <trkpt lat="36.630310" lon="-116.316750">
        <ele>871.915</ele>
        <time>2018-12-28T12:14:22Z</time>
      </trkpt>
      <trkpt lat="36.630220" lon="-116.316550">
        <ele>871.826</ele>
        <time>2018-12-28T12:14:42Z</time>
      </trkpt>
      <trkpt lat="36.630100" lon="-116.316310">
        <ele>871.708</ele>
        <time>2018-12-28T12:15:02Z</time>
      </trkpt>
      <trkpt lat="36.629940" lon="-116.315960">
        <ele>871.672</ele>
        <time>2018-12-28T12:15:22Z</time>
      </trkpt>
      <trkpt lat="36.629760" lon="-116.315630">
        <ele>871.610</ele>
        <time>2018-12-28T12:15:42Z</time>
      </trkpt>
      <trkpt lat="36.629520" lon="-116.315200">
        <ele>871.695</ele>
        <time>2018-12-28T12:16:02Z</time>
      </trkpt>
      <trkpt lat="36.626180" lon="-116.309640">
        <ele>877.486</ele>
        <time>2018-12-28T12:16:22Z</time>
      </trkpt>
      <trkpt lat="36.626090" lon="-116.309480">
        <ele>877.090</ele>
        <time>2018-12-28T12:16:42Z</time>
      </trkpt>
      <trkpt lat="36.625930" lon="-116.309160">
        <ele>876.039</ele>
        <time>2018-12-28T12:17:02Z</time>
      </trkpt>
      <trkpt lat="36.625750" lon="-116.308790">
        <ele>875.058</ele>
        <time>2018-12-28T12:17:22Z</time>
      </trkpt>
      <trkpt lat="36.625520" lon="-116.308270">
        <ele>874.498</ele>
        <time>2018-12-28T12:17:42Z</time>
      </trkpt>
      <trkpt lat="36.625310" lon="-116.307770">
        <ele>872.995</ele>
        <time>2018-12-28T12:18:02Z</time>
      </trkpt>
      <trkpt lat="36.625120" lon="-116.307280">
        <ele>872.149</ele>
        <time>2018-12-28T12:18:22Z</time>
      </trkpt>
      <trkpt lat="36.624990" lon="-116.306920">
        <ele>871.023</ele>
        <time>2018-12-28T12:18:42Z</time>
      </trkpt>
      <trkpt lat="36.624890" lon="-116.306620">
        <ele>870.308</ele>
        <time>2018-12-28T12:19:02Z</time>
      </trkpt>
      <trkpt lat="36.624810" lon="-116.306360">
        <ele>869.782</ele>
        <time>2018-12-28T12:19:22Z</time>
      </trkpt>
      <trkpt lat="36.624740" lon="-116.306150">
        <ele>869.490</ele>
        <time>2018-12-28T12:19:42Z</time>
      </trkpt>
      <trkpt lat="36.624680" lon="-116.305950">
        <ele>869.325</ele>
        <time>2018-12-28T12:20:02Z</time>
      </trkpt>
      <trkpt lat="36.624570" lon="-116.305530">
        <ele>868.226</ele>
        <time>2018-12-28T12:20:22Z</time>
      </trkpt>
      <trkpt lat="36.624490" lon="-116.305220">
        <ele>867.690</ele>
        <time>2018-12-28T12:20:42Z</time>
      </trkpt>
      <trkpt lat="36.624420" lon="-116.304970">
        <ele>867.389</ele>
        <time>2018-12-28T12:21:02Z</time>
      </trkpt>
      <trkpt lat="36.624360" lon="-116.304700">
        <ele>866.758</ele>
        <time>2018-12-28T12:21:22Z</time>
      </trkpt>
      <trkpt lat="36.624330" lon="-116.304570">
        <ele>866.498</ele>
        <time>2018-12-28T12:21:42Z</time>
      </trkpt>
      <trkpt lat="36.624280" lon="-116.304380">
        <ele>866.193</ele>
        <time>2018-12-28T12:22:02Z</time>
      </trkpt>
      <trkpt lat="36.624240" lon="-116.304150">
        <ele>865.665</ele>
        <time>2018-12-28T12:22:22Z</time>
      </trkpt>
      <trkpt lat="36.624210" lon="-116.304010">
        <ele>865.221</ele>
        <time>2018-12-28T12:22:42Z</time>
      </trkpt>
      <trkpt lat="36.624190" lon="-116.303890">
        <ele>864.708</ele>
        <time>2018-12-28T12:23:02Z</time>
      </trkpt>
      <trkpt lat="36.624100" lon="-116.303470">
        <ele>863.252</ele>
        <time>2018-12-28T12:23:22Z</time>
      </trkpt>
      <trkpt lat="36.624000" lon="-116.302940">
        <ele>863.690</ele>
        <time>2018-12-28T12:23:42Z</time>
      </trkpt>
      <trkpt lat="36.623890" lon="-116.302430">
        <ele>863.675</ele>
        <time>2018-12-28T12:24:02Z</time>
      </trkpt>
      <trkpt lat="36.623820" lon="-116.302080">
        <ele>863.846</ele>
        <time>2018-12-28T12:24:22Z</time>
      </trkpt>
      <trkpt lat="36.623750" lon="-116.301770">
        <ele>863.870</ele>
        <time>2018-12-28T12:24:42Z</time>
      </trkpt>
      <trkpt lat="36.623670" lon="-116.301430">
        <ele>863.479</ele>
        <time>2018-12-28T12:25:02Z</time>
      </trkpt>
      <trkpt lat="36.623600" lon="-116.301140">
        <ele>862.828</ele>
        <time>2018-12-28T12:25:22Z</time>
      </trkpt>
      <trkpt lat="36.623510" lon="-116.300780">
        <ele>862.698</ele>
        <time>2018-12-28T12:25:42Z</time>
      </trkpt>
      <trkpt lat="36.623380" lon="-116.300350">
        <ele>863.047</ele>
        <time>2018-12-28T12:26:02Z</time>
      </trkpt>
      <trkpt lat="36.623270" lon="-116.300020">
        <ele>863.829</ele>
        <time>2018-12-28T12:26:22Z</time>
      </trkpt>
      <trkpt lat="36.623100" lon="-116.299520">
        <ele>864.521</ele>
        <time>2018-12-28T12:26:42Z</time>
      </trkpt>
      <trkpt lat="36.622980" lon="-116.299200">
        <ele>865.008</ele>
        <time>2018-12-28T12:27:02Z</time>
      </trkpt>
      <trkpt lat="36.622890" lon="-116.298970">
        <ele>865.277</ele>
        <time>2018-12-28T12:27:22Z</time>
      </trkpt>
      <trkpt lat="36.622820" lon="-116.298800">
        <ele>865.325</ele>
        <time>2018-12-28T12:27:42Z</time>
      </trkpt>
      <trkpt lat="36.622720" lon="-116.298550">
        <ele>865.360</ele>
        <time>2018-12-28T12:28:02Z</time>
      </trkpt>
      <trkpt lat="36.622620" lon="-116.298320">
        <ele>865.291</ele>
        <time>2018-12-28T12:28:22Z</time>
      </trkpt>
      <trkpt lat="36.622510" lon="-116.298070">
        <ele>864.945</ele>
        <time>2018-12-28T12:28:42Z</time>
      </trkpt>
      <trkpt lat="36.622410" lon="-116.297850">
        <ele>864.794</ele>
        <time>2018-12-28T12:29:02Z</time>
      </trkpt>
      <trkpt lat="36.622090" lon="-116.297110">
        <ele>862.393</ele>
        <time>2018-12-28T12:29:22Z</time>
      </trkpt>
      <trkpt lat="36.621810" lon="-116.296450">
        <ele>861.513</ele>
        <time>2018-12-28T12:29:42Z</time>
      </trkpt>
      <trkpt lat="36.621670" lon="-116.296150">
        <ele>861.488</ele>
        <time>2018-12-28T12:30:02Z</time>
      </trkpt>
      <trkpt lat="36.621560" lon="-116.295890">
        <ele>861.324</ele>
        <time>2018-12-28T12:30:22Z</time>
      </trkpt>
      <trkpt lat="36.621420" lon="-116.295570">
        <ele>861.226</ele>
        <time>2018-12-28T12:30:42Z</time>
      </trkpt>
      <trkpt lat="36.621040" lon="-116.294730">
        <ele>862.708</ele>
        <time>2018-12-28T12:31:02Z</time>
      </trkpt>
      <trkpt lat="36.620730" lon="-116.294010">
        <ele>862.831</ele>
        <time>2018-12-28T12:31:22Z</time>
      </trkpt>
      <trkpt lat="36.620500" lon="-116.293490">
        <ele>862.699</ele>
        <time>2018-12-28T12:31:42Z</time>
      </trkpt>
      <trkpt lat="36.620360" lon="-116.293180">
        <ele>862.714</ele>
        <time>2018-12-28T12:32:02Z</time>
      </trkpt>
      <trkpt lat="36.619930" lon="-116.292190">
        <ele>862.945</ele>
        <time>2018-12-28T12:32:22Z</time>
      </trkpt>
      <trkpt lat="36.619750" lon="-116.291790">
        <ele>862.929</ele>
        <time>2018-12-28T12:32:42Z</time>
      </trkpt>
      <trkpt lat="36.619170" lon="-116.290460">
        <ele>862.748</ele>
        <time>2018-12-28T12:33:02Z</time>
      </trkpt>
      <trkpt lat="36.618840" lon="-116.289720">
        <ele>862.817</ele>
        <time>2018-12-28T12:33:22Z</time>
      </trkpt>
      <trkpt lat="36.618630" lon="-116.289230">
        <ele>861.897</ele>
        <time>2018-12-28T12:33:42Z</time>
      </trkpt>
      <trkpt lat="36.618420" lon="-116.288750">
        <ele>860.838</ele>
        <time>2018-12-28T12:34:02Z</time>
      </trkpt>
      <trkpt lat="36.618370" lon="-116.288620">
        <ele>860.270</ele>
        <time>2018-12-28T12:34:22Z</time>
      </trkpt>
      <trkpt lat="36.618310" lon="-116.288500">
        <ele>859.817</ele>
        <time>2018-12-28T12:34:42Z</time>
      </trkpt>
      <trkpt lat="36.618230" lon="-116.288310">
        <ele>859.908</ele>
        <time>2018-12-28T12:35:02Z</time>
      </trkpt>
      <trkpt lat="36.617890" lon="-116.287550">
        <ele>861.746</ele>
        <time>2018-12-28T12:35:22Z</time>
      </trkpt>
      <trkpt lat="36.617650" lon="-116.287000">
        <ele>861.744</ele>
        <time>2018-12-28T12:35:42Z</time>
      </trkpt>
      <trkpt lat="36.617420" lon="-116.286490">
        <ele>862.679</ele>
        <time>2018-12-28T12:36:02Z</time>
      </trkpt>
      <trkpt lat="36.617140" lon="-116.285840">
        <ele>861.380</ele>
        <time>2018-12-28T12:36:22Z</time>
      </trkpt>
      <trkpt lat="36.616900" lon="-116.285300">
        <ele>859.794</ele>
        <time>2018-12-28T12:36:42Z</time>
      </trkpt>
      <trkpt lat="36.616690" lon="-116.284820">
        <ele>859.323</ele>
        <time>2018-12-28T12:37:02Z</time>
      </trkpt>
      <trkpt lat="36.616480" lon="-116.284350">
        <ele>859.572</ele>
        <time>2018-12-28T12:37:22Z</time>
      </trkpt>
      <trkpt lat="36.616420" lon="-116.284210">
        <ele>859.782</ele>
        <time>2018-12-28T12:37:42Z</time>
      </trkpt>
      <trkpt lat="36.615130" lon="-116.281270">
        <ele>857.231</ele>
        <time>2018-12-28T12:38:02Z</time>
      </trkpt>
      <trkpt lat="36.614920" lon="-116.280790">
        <ele>857.261</ele>
        <time>2018-12-28T12:38:22Z</time>
      </trkpt>
      <trkpt lat="36.614710" lon="-116.280300">
        <ele>855.507</ele>
        <time>2018-12-28T12:38:42Z</time>
      </trkpt>
      <trkpt lat="36.613440" lon="-116.277420">
        <ele>856.708</ele>
        <time>2018-12-28T12:39:02Z</time>
      </trkpt>
      <trkpt lat="36.613300" lon="-116.277100">
        <ele>857.056</ele>
        <time>2018-12-28T12:39:22Z</time>
      </trkpt>
      <trkpt lat="36.613130" lon="-116.276710">
        <ele>856.684</ele>
        <time>2018-12-28T12:39:42Z</time>
      </trkpt>
      <trkpt lat="36.612810" lon="-116.275980">
        <ele>856.429</ele>
        <time>2018-12-28T12:40:02Z</time>
      </trkpt>
      <trkpt lat="36.612600" lon="-116.275460">
        <ele>856.480</ele>
        <time>2018-12-28T12:40:22Z</time>
      </trkpt>
      <trkpt lat="36.612190" lon="-116.274430">
        <ele>856.054</ele>
        <time>2018-12-28T12:40:42Z</time>
      </trkpt>
      <trkpt lat="36.612070" lon="-116.274150">
        <ele>855.823</ele>
        <time>2018-12-28T12:41:02Z</time>
      </trkpt>
      <trkpt lat="36.611800" lon="-116.273500">
        <ele>855.762</ele>
        <time>2018-12-28T12:41:22Z</time>
      </trkpt>
      <trkpt lat="36.610530" lon="-116.270540">
        <ele>842.742</ele>
        <time>2018-12-28T12:41:42Z</time>
      </trkpt>
      <trkpt lat="36.610260" lon="-116.269910">
        <ele>840.236</ele>
        <time>2018-12-28T12:42:02Z</time>
      </trkpt>
      <trkpt lat="36.609480" lon="-116.268130">
        <ele>838.117</ele>
        <time>2018-12-28T12:42:22Z</time>
      </trkpt>
      <trkpt lat="36.609050" lon="-116.267150">
        <ele>837.618</ele>
        <time>2018-12-28T12:42:42Z</time>
      </trkpt>
      <trkpt lat="36.608340" lon="-116.265510">
        <ele>836.608</ele>
        <time>2018-12-28T12:43:02Z</time>
      </trkpt>
      <trkpt lat="36.607670" lon="-116.263960">
        <ele>836.366</ele>
        <time>2018-12-28T12:43:22Z</time>
      </trkpt>
      <trkpt lat="36.606380" lon="-116.261010">
        <ele>841.844</ele>
        <time>2018-12-28T12:43:42Z</time>
      </trkpt>
      <trkpt lat="36.605870" lon="-116.259840">
        <ele>844.259</ele>
        <time>2018-12-28T12:44:02Z</time>
      </trkpt>
      <trkpt lat="36.605520" lon="-116.259040">
        <ele>845.080</ele>
        <time>2018-12-28T12:44:22Z</time>
      </trkpt>
      <trkpt lat="36.604690" lon="-116.257140">
        <ele>848.514</ele>
        <time>2018-12-28T12:44:42Z</time>
      </trkpt>
      <trkpt lat="36.603720" lon="-116.254900">
        <ele>850.723</ele>
        <time>2018-12-28T12:45:02Z</time>
      </trkpt>
      <trkpt lat="36.603190" lon="-116.253680">
        <ele>851.842</ele>
        <time>2018-12-28T12:45:22Z</time>
      </trkpt>
      <trkpt lat="36.603040" lon="-116.253330">
        <ele>852.062</ele>
        <time>2018-12-28T12:45:42Z</time>
      </trkpt>
      <trkpt lat="36.602790" lon="-116.252760">
        <ele>852.988</ele>
        <time>2018-12-28T12:46:02Z</time>
      </trkpt>
      <trkpt lat="36.602580" lon="-116.252280">
        <ele>853.124</ele>
        <time>2018-12-28T12:46:22Z</time>
      </trkpt>
      <trkpt lat="36.602090" lon="-116.251170">
        <ele>852.426</ele>
        <time>2018-12-28T12:46:42Z</time>
      </trkpt>
      <trkpt lat="36.601610" lon="-116.250060">
        <ele>852.008</ele>
        <time>2018-12-28T12:47:02Z</time>
      </trkpt>
      <trkpt lat="36.601270" lon="-116.249270">
        <ele>851.441</ele>
        <time>2018-12-28T12:47:22Z</time>
      </trkpt>
      <trkpt lat="36.600480" lon="-116.247440">
        <ele>850.919</ele>
        <time>2018-12-28T12:47:42Z</time>
      </trkpt>
      <trkpt lat="36.598250" lon="-116.242340">
        <ele>849.454</ele>
        <time>2018-12-28T12:48:02Z</time>
      </trkpt>
      <trkpt lat="36.597510" lon="-116.240630">
        <ele>848.555</ele>
        <time>2018-12-28T12:48:22Z</time>
      </trkpt>
      <trkpt lat="36.596180" lon="-116.237580">
        <ele>846.969</ele>
        <time>2018-12-28T12:48:42Z</time>
      </trkpt>
      <trkpt lat="36.594940" lon="-116.234750">
        <ele>844.828</ele>
        <time>2018-12-28T12:49:02Z</time>
      </trkpt>
      <trkpt lat="36.594050" lon="-116.232690">
        <ele>842.637</ele>
        <time>2018-12-28T12:49:22Z</time>
      </trkpt>
      <trkpt lat="36.593790" lon="-116.232100">
        <ele>841.187</ele>
        <time>2018-12-28T12:49:42Z</time>
      </trkpt>
      <trkpt lat="36.592860" lon="-116.229960">
        <ele>838.448</ele>
        <time>2018-12-28T12:50:02Z</time>
      </trkpt>
      <trkpt lat="36.590820" lon="-116.225280">
        <ele>834.661</ele>
        <time>2018-12-28T12:50:22Z</time>
      </trkpt>
      <trkpt lat="36.589280" lon="-116.221750">
        <ele>832.417</ele>
        <time>2018-12-28T12:50:42Z</time>
      </trkpt>
      <trkpt lat="36.588880" lon="-116.220860">
        <ele>833.508</ele>
        <time>2018-12-28T12:51:02Z</time>
      </trkpt>
      <trkpt lat="36.587630" lon="-116.217960">
        <ele>833.987</ele>
        <time>2018-12-28T12:51:22Z</time>
      </trkpt>
      <trkpt lat="36.586820" lon="-116.216100">
        <ele>833.815</ele>
        <time>2018-12-28T12:51:42Z</time>
      </trkpt>
      <trkpt lat="36.586380" lon="-116.215100">
        <ele>832.840</ele>
        <time>2018-12-28T12:52:02Z</time>
      </trkpt>
      <trkpt lat="36.586050" lon="-116.214340">
        <ele>831.441</ele>
        <time>2018-12-28T12:52:22Z</time>
      </trkpt>
      <trkpt lat="36.585830" lon="-116.213840">
        <ele>830.725</ele>
        <time>2018-12-28T12:52:42Z</time>
      </trkpt>
      <trkpt lat="36.585650" lon="-116.213440">
        <ele>830.664</ele>
        <time>2018-12-28T12:53:02Z</time>
      </trkpt>
      <trkpt lat="36.585310" lon="-116.212630">
        <ele>829.463</ele>
        <time>2018-12-28T12:53:22Z</time>
      </trkpt>
      <trkpt lat="36.583890" lon="-116.209370">
        <ele>828.313</ele>
        <time>2018-12-28T12:53:42Z</time>
      </trkpt>
      <trkpt lat="36.582890" lon="-116.207060">
        <ele>836.566</ele>
        <time>2018-12-28T12:54:02Z</time>
      </trkpt>
      <trkpt lat="36.582500" lon="-116.206190">
        <ele>842.129</ele>
        <time>2018-12-28T12:54:22Z</time>
      </trkpt>
      <trkpt lat="36.582360" lon="-116.205860">
        <ele>844.721</ele>
        <time>2018-12-28T12:54:42Z</time>
      </trkpt>
      <trkpt lat="36.582150" lon="-116.205390">
        <ele>847.108</ele>
        <time>2018-12-28T12:55:02Z</time>
      </trkpt>
      <trkpt lat="36.581900" lon="-116.204800">
        <ele>848.169</ele>
        <time>2018-12-28T12:55:22Z</time>
      </trkpt>
      <trkpt lat="36.581680" lon="-116.204280">
        <ele>847.717</ele>
        <time>2018-12-28T12:55:42Z</time>
      </trkpt>
      <trkpt lat="36.580970" lon="-116.202660">
        <ele>849.252</ele>
        <time>2018-12-28T12:56:02Z</time>
      </trkpt>
      <trkpt lat="36.579280" lon="-116.198780">
        <ele>844.583</ele>
        <time>2018-12-28T12:56:22Z</time>
      </trkpt>
      <trkpt lat="36.578380" lon="-116.196720">
        <ele>849.267</ele>
        <time>2018-12-28T12:56:42Z</time>
      </trkpt>
      <trkpt lat="36.577390" lon="-116.194450">
        <ele>853.186</ele>
        <time>2018-12-28T12:57:02Z</time>
      </trkpt>
      <trkpt lat="36.576710" lon="-116.192890">
        <ele>854.535</ele>
        <time>2018-12-28T12:57:22Z</time>
      </trkpt>
      <trkpt lat="36.576400" lon="-116.192180">
        <ele>854.435</ele>
        <time>2018-12-28T12:57:42Z</time>
      </trkpt>
      <trkpt lat="36.576180" lon="-116.191680">
        <ele>854.098</ele>
        <time>2018-12-28T12:58:02Z</time>
      </trkpt>
      <trkpt lat="36.575980" lon="-116.191220">
        <ele>853.415</ele>
        <time>2018-12-28T12:58:22Z</time>
      </trkpt>
      <trkpt lat="36.575770" lon="-116.190730">
        <ele>853.026</ele>
        <time>2018-12-28T12:58:42Z</time>
      </trkpt>
      <trkpt lat="36.575670" lon="-116.190510">
        <ele>853.108</ele>
        <time>2018-12-28T12:59:02Z</time>
      </trkpt>
      <trkpt lat="36.575570" lon="-116.190280">
        <ele>853.042</ele>
        <time>2018-12-28T12:59:22Z</time>
      </trkpt>
      <trkpt lat="36.575410" lon="-116.189880">
        <ele>852.440</ele>
        <time>2018-12-28T12:59:42Z</time>
      </trkpt>
      <trkpt lat="36.575270" lon="-116.189550">
        <ele>851.715</ele>
        <time>2018-12-28T13:00:02Z</time>
      </trkpt>
      <trkpt lat="36.574970" lon="-116.188750">
        <ele>850.936</ele>
        <time>2018-12-28T13:00:22Z</time>
      </trkpt>
      <trkpt lat="36.574690" lon="-116.187990">
        <ele>850.990</ele>
        <time>2018-12-28T13:00:42Z</time>
      </trkpt>
      <trkpt lat="36.574480" lon="-116.187360">
        <ele>850.979</ele>
        <time>2018-12-28T13:01:02Z</time>
      </trkpt>
      <trkpt lat="36.574360" lon="-116.187000">
        <ele>850.978</ele>
        <time>2018-12-28T13:01:22Z</time>
      </trkpt>
      <trkpt lat="36.574220" lon="-116.186550">
        <ele>850.338</ele>
        <time>2018-12-28T13:01:42Z</time>
      </trkpt>
      <trkpt lat="36.574080" lon="-116.186060">
        <ele>849.521</ele>
        <time>2018-12-28T13:02:02Z</time>
      </trkpt>
      <trkpt lat="36.574010" lon="-116.185820">
        <ele>849.441</ele>
        <time>2018-12-28T13:02:22Z</time>
      </trkpt>
      <trkpt lat="36.573940" lon="-116.185560">
        <ele>849.405</ele>
        <time>2018-12-28T13:02:42Z</time>
      </trkpt>
      <trkpt lat="36.573740" lon="-116.184830">
        <ele>848.908</ele>
        <time>2018-12-28T13:03:02Z</time>
      </trkpt>
      <trkpt lat="36.573610" lon="-116.184310">
        <ele>848.385</ele>
        <time>2018-12-28T13:03:22Z</time>
      </trkpt>
      <trkpt lat="36.573510" lon="-116.183900">
        <ele>848.083</ele>
        <time>2018-12-28T13:03:42Z</time>
      </trkpt>
      <trkpt lat="36.573380" lon="-116.183320">
        <ele>847.538</ele>
        <time>2018-12-28T13:04:02Z</time>
      </trkpt>
      <trkpt lat="36.573240" lon="-116.182670">
        <ele>846.959</ele>
        <time>2018-12-28T13:04:22Z</time>
      </trkpt>
      <trkpt lat="36.573190" lon="-116.182400">
        <ele>846.623</ele>
        <time>2018-12-28T13:04:42Z</time>
      </trkpt>
      <trkpt lat="36.573140" lon="-116.182120">
        <ele>846.732</ele>
        <time>2018-12-28T13:05:02Z</time>
      </trkpt>
      <trkpt lat="36.573060" lon="-116.181680">
        <ele>846.371</ele>
        <time>2018-12-28T13:05:22Z</time>
      </trkpt>
      <trkpt lat="36.573000" lon="-116.181340">
        <ele>846.161</ele>
        <time>2018-12-28T13:05:42Z</time>
      </trkpt>
      <trkpt lat="36.572930" lon="-116.180850">
        <ele>845.959</ele>
        <time>2018-12-28T13:06:02Z</time>
      </trkpt>
      <trkpt lat="36.572850" lon="-116.180310">
        <ele>845.903</ele>
        <time>2018-12-28T13:06:22Z</time>
      </trkpt>
      <trkpt lat="36.572620" lon="-116.178730">
        <ele>844.923</ele>
        <time>2018-12-28T13:06:42Z</time>
      </trkpt>
      <trkpt lat="36.572490" lon="-116.177740">
        <ele>844.308</ele>
        <time>2018-12-28T13:07:02Z</time>
      </trkpt>
      <trkpt lat="36.572260" lon="-116.176120">
        <ele>843.118</ele>
        <time>2018-12-28T13:07:22Z</time>
      </trkpt>
      <trkpt lat="36.572010" lon="-116.174380">
        <ele>843.886</ele>
        <time>2018-12-28T13:07:42Z</time>
      </trkpt>
      <trkpt lat="36.571710" lon="-116.172250">
        <ele>842.831</ele>
        <time>2018-12-28T13:08:02Z</time>
      </trkpt>
      <trkpt lat="36.571400" lon="-116.170050">
        <ele>842.672</ele>
        <time>2018-12-28T13:08:22Z</time>
      </trkpt>
      <trkpt lat="36.571060" lon="-116.167600">
        <ele>841.996</ele>
        <time>2018-12-28T13:08:42Z</time>
      </trkpt>
      <trkpt lat="36.571050" lon="-116.167530">
        <ele>841.915</ele>
        <time>2018-12-28T13:09:02Z</time>
      </trkpt>
      <trkpt lat="36.570660" lon="-116.164820">
        <ele>843.684</ele>
        <time>2018-12-28T13:09:22Z</time>
      </trkpt>
      <trkpt lat="36.570250" lon="-116.161900">
        <ele>844.654</ele>
        <time>2018-12-28T13:09:42Z</time>
      </trkpt>
      <trkpt lat="36.570190" lon="-116.161460">
        <ele>844.667</ele>
        <time>2018-12-28T13:10:02Z</time>
      </trkpt>
      <trkpt lat="36.569860" lon="-116.159170">
        <ele>845.381</ele>
        <time>2018-12-28T13:10:22Z</time>
      </trkpt>
      <trkpt lat="36.569800" lon="-116.158700">
        <ele>845.419</ele>
        <time>2018-12-28T13:10:42Z</time>
      </trkpt>
      <trkpt lat="36.569680" lon="-116.157890">
        <ele>845.708</ele>
        <time>2018-12-28T13:11:02Z</time>
      </trkpt>
      <trkpt lat="36.569610" lon="-116.157370">
        <ele>845.989</ele>
        <time>2018-12-28T13:11:22Z</time>
      </trkpt>
      <trkpt lat="36.569220" lon="-116.154610">
        <ele>847.287</ele>
        <time>2018-12-28T13:11:42Z</time>
      </trkpt>
      <trkpt lat="36.568990" lon="-116.152940">
        <ele>846.942</ele>
        <time>2018-12-28T13:12:02Z</time>
      </trkpt>
      <trkpt lat="36.568880" lon="-116.152170">
        <ele>847.393</ele>
        <time>2018-12-28T13:12:22Z</time>
      </trkpt>
      <trkpt lat="36.568770" lon="-116.151390">
        <ele>847.637</ele>
        <time>2018-12-28T13:12:42Z</time>
      </trkpt>
      <trkpt lat="36.568620" lon="-116.150320">
        <ele>847.996</ele>
        <time>2018-12-28T13:13:02Z</time>
      </trkpt>
      <trkpt lat="36.568090" lon="-116.146600">
        <ele>848.995</ele>
        <time>2018-12-28T13:13:22Z</time>
      </trkpt>
      <trkpt lat="36.568060" lon="-116.146370">
        <ele>848.985</ele>
        <time>2018-12-28T13:13:42Z</time>
      </trkpt>
      <trkpt lat="36.567550" lon="-116.142800">
        <ele>851.673</ele>
        <time>2018-12-28T13:14:02Z</time>
      </trkpt>
      <trkpt lat="36.566370" lon="-116.134400">
        <ele>858.085</ele>
        <time>2018-12-28T13:14:22Z</time>
      </trkpt>
      <trkpt lat="36.565940" lon="-116.131420">
        <ele>859.813</ele>
        <time>2018-12-28T13:14:42Z</time>
      </trkpt>
      <trkpt lat="36.565800" lon="-116.130390">
        <ele>860.808</ele>
        <time>2018-12-28T13:15:02Z</time>
      </trkpt>
      <trkpt lat="36.565550" lon="-116.128640">
        <ele>861.480</ele>
        <time>2018-12-28T13:15:22Z</time>
      </trkpt>
      <trkpt lat="36.565360" lon="-116.127310">
        <ele>861.598</ele>
        <time>2018-12-28T13:15:42Z</time>
      </trkpt>
      <trkpt lat="36.565050" lon="-116.125050">
        <ele>861.893</ele>
        <time>2018-12-28T13:16:02Z</time>
      </trkpt>
      <trkpt lat="36.565030" lon="-116.124920">
        <ele>861.824</ele>
        <time>2018-12-28T13:16:22Z</time>
      </trkpt>
      <trkpt lat="36.565000" lon="-116.124880">
        <ele>861.878</ele>
        <time>2018-12-28T13:16:42Z</time>
      </trkpt>
      <trkpt lat="36.564760" lon="-116.123230">
        <ele>862.437</ele>
        <time>2018-12-28T13:17:02Z</time>
      </trkpt>
      <trkpt lat="36.564520" lon="-116.121560">
        <ele>864.616</ele>
        <time>2018-12-28T13:17:22Z</time>
      </trkpt>
      <trkpt lat="36.564300" lon="-116.119870">
        <ele>865.516</ele>
        <time>2018-12-28T13:17:42Z</time>
      </trkpt>
      <trkpt lat="36.564310" lon="-116.119830">
        <ele>865.699</ele>
        <time>2018-12-28T13:18:02Z</time>
      </trkpt>
      <trkpt lat="36.564240" lon="-116.119390">
        <ele>865.607</ele>
        <time>2018-12-28T13:18:22Z</time>
      </trkpt>
      <trkpt lat="36.563720" lon="-116.115660">
        <ele>864.527</ele>
        <time>2018-12-28T13:18:42Z</time>
      </trkpt>
      <trkpt lat="36.563530" lon="-116.114330">
        <ele>864.108</ele>
        <time>2018-12-28T13:19:02Z</time>
      </trkpt>
      <trkpt lat="36.562330" lon="-116.105890">
        <ele>863.312</ele>
        <time>2018-12-28T13:19:22Z</time>
      </trkpt>
      <trkpt lat="36.561990" lon="-116.103490">
        <ele>862.630</ele>
        <time>2018-12-28T13:19:42Z</time>
      </trkpt>
      <trkpt lat="36.561770" lon="-116.101890">
        <ele>862.365</ele>
        <time>2018-12-28T13:20:02Z</time>
      </trkpt>
      <trkpt lat="36.561550" lon="-116.100420">
        <ele>867.056</ele>
        <time>2018-12-28T13:20:22Z</time>
      </trkpt>
      <trkpt lat="36.561470" lon="-116.099840">
        <ele>869.370</ele>
        <time>2018-12-28T13:20:42Z</time>
      </trkpt>
      <trkpt lat="36.561400" lon="-116.099310">
        <ele>868.069</ele>
        <time>2018-12-28T13:21:02Z</time>
      </trkpt>
      <trkpt lat="36.561340" lon="-116.098890">
        <ele>866.818</ele>
        <time>2018-12-28T13:21:22Z</time>
      </trkpt>
      <trkpt lat="36.561300" lon="-116.098520">
        <ele>866.448</ele>
        <time>2018-12-28T13:21:42Z</time>
      </trkpt>
      <trkpt lat="36.561280" lon="-116.098240">
        <ele>866.282</ele>
        <time>2018-12-28T13:22:02Z</time>
      </trkpt>
      <trkpt lat="36.561250" lon="-116.097920">
        <ele>866.143</ele>
        <time>2018-12-28T13:22:22Z</time>
      </trkpt>
      <trkpt lat="36.561230" lon="-116.097660">
        <ele>866.517</ele>
        <time>2018-12-28T13:22:42Z</time>
      </trkpt>
      <trkpt lat="36.561220" lon="-116.097490">
        <ele>866.508</ele>
        <time>2018-12-28T13:23:02Z</time>
      </trkpt>
      <trkpt lat="36.561210" lon="-116.097270">
        <ele>866.561</ele>
        <time>2018-12-28T13:23:22Z</time>
      </trkpt>
      <trkpt lat="36.561200" lon="-116.096990">
        <ele>866.779</ele>
        <time>2018-12-28T13:23:42Z</time>
      </trkpt>
      <trkpt lat="36.561190" lon="-116.096720">
        <ele>866.974</ele>
        <time>2018-12-28T13:24:02Z</time>
      </trkpt>
      <trkpt lat="36.561190" lon="-116.096420">
        <ele>867.275</ele>
        <time>2018-12-28T13:24:22Z</time>
      </trkpt>
      <trkpt lat="36.561190" lon="-116.096220">
        <ele>867.559</ele>
        <time>2018-12-28T13:24:42Z</time>
      </trkpt>
      <trkpt lat="36.561190" lon="-116.096020">
        <ele>867.748</ele>
        <time>2018-12-28T13:25:02Z</time>
      </trkpt>
      <trkpt lat="36.561190" lon="-116.095820">
        <ele>867.737</ele>
        <time>2018-12-28T13:25:22Z</time>
      </trkpt>
      <trkpt lat="36.561200" lon="-116.095630">
        <ele>867.827</ele>
        <time>2018-12-28T13:25:42Z</time>
      </trkpt>
      <trkpt lat="36.561220" lon="-116.095210">
        <ele>868.357</ele>
        <time>2018-12-28T13:26:02Z</time>
      </trkpt>
      <trkpt lat="36.561230" lon="-116.095010">
        <ele>868.600</ele>
        <time>2018-12-28T13:26:22Z</time>
      </trkpt>
      <trkpt lat="36.561240" lon="-116.094820">
        <ele>868.920</ele>
        <time>2018-12-28T13:26:42Z</time>
      </trkpt>
      <trkpt lat="36.561250" lon="-116.094640">
        <ele>868.908</ele>
        <time>2018-12-28T13:27:02Z</time>
      </trkpt>
      <trkpt lat="36.561270" lon="-116.094420">
        <ele>869.188</ele>
        <time>2018-12-28T13:27:22Z</time>
      </trkpt>
      <trkpt lat="36.561300" lon="-116.094160">
        <ele>869.486</ele>
        <time>2018-12-28T13:27:42Z</time>
      </trkpt>
      <trkpt lat="36.561330" lon="-116.093870">
        <ele>869.841</ele>
        <time>2018-12-28T13:28:02Z</time>
      </trkpt>
      <trkpt lat="36.561350" lon="-116.093680">
        <ele>870.192</ele>
        <time>2018-12-28T13:28:22Z</time>
      </trkpt>
      <trkpt lat="36.561370" lon="-116.093500">
        <ele>870.456</ele>
        <time>2018-12-28T13:28:42Z</time>
      </trkpt>
      <trkpt lat="36.561430" lon="-116.093140">
        <ele>870.965</ele>
        <time>2018-12-28T13:29:02Z</time>
      </trkpt>
      <trkpt lat="36.561500" lon="-116.092690">
        <ele>871.214</ele>
        <time>2018-12-28T13:29:22Z</time>
      </trkpt>
      <trkpt lat="36.561570" lon="-116.092290">
        <ele>871.594</ele>
        <time>2018-12-28T13:29:42Z</time>
      </trkpt>
      <trkpt lat="36.561660" lon="-116.091870">
        <ele>872.286</ele>
        <time>2018-12-28T13:30:02Z</time>
      </trkpt>
      <trkpt lat="36.561710" lon="-116.091640">
        <ele>872.560</ele>
        <time>2018-12-28T13:30:22Z</time>
      </trkpt>
      <trkpt lat="36.561770" lon="-116.091390">
        <ele>872.726</ele>
        <time>2018-12-28T13:30:42Z</time>
      </trkpt>
      <trkpt lat="36.561850" lon="-116.091070">
        <ele>873.008</ele>
        <time>2018-12-28T13:31:02Z</time>
      </trkpt>
      <trkpt lat="36.561940" lon="-116.090730">
        <ele>873.641</ele>
        <time>2018-12-28T13:31:22Z</time>
      </trkpt>
      <trkpt lat="36.562050" lon="-116.090350">
        <ele>874.089</ele>
        <time>2018-12-28T13:31:42Z</time>
      </trkpt>
      <trkpt lat="36.562180" lon="-116.089960">
        <ele>874.464</ele>
        <time>2018-12-28T13:32:02Z</time>
      </trkpt>
      <trkpt lat="36.562310" lon="-116.089570">
        <ele>874.795</ele>
        <time>2018-12-28T13:32:22Z</time>
      </trkpt>
      <trkpt lat="36.562410" lon="-116.089280">
        <ele>875.129</ele>
        <time>2018-12-28T13:32:42Z</time>
      </trkpt>
      <trkpt lat="36.562480" lon="-116.089100">
        <ele>875.438</ele>
        <time>2018-12-28T13:33:02Z</time>
      </trkpt>
      <trkpt lat="36.562600" lon="-116.088780">
        <ele>875.587</ele>
        <time>2018-12-28T13:33:22Z</time>
      </trkpt>
      <trkpt lat="36.562760" lon="-116.088390">
        <ele>875.677</ele>
        <time>2018-12-28T13:33:42Z</time>
      </trkpt>
      <trkpt lat="36.562840" lon="-116.088190">
        <ele>875.744</ele>
        <time>2018-12-28T13:34:02Z</time>
      </trkpt>
      <trkpt lat="36.562950" lon="-116.087950">
        <ele>875.805</ele>
        <time>2018-12-28T13:34:22Z</time>
      </trkpt>
      <trkpt lat="36.563070" lon="-116.087700">
        <ele>876.115</ele>
        <time>2018-12-28T13:34:42Z</time>
      </trkpt>
      <trkpt lat="36.563250" lon="-116.087320">
        <ele>876.408</ele>
        <time>2018-12-28T13:35:02Z</time>
      </trkpt>
      <trkpt lat="36.563430" lon="-116.086990">
        <ele>876.937</ele>
        <time>2018-12-28T13:35:22Z</time>
      </trkpt>
      <trkpt lat="36.563640" lon="-116.086590">
        <ele>877.465</ele>
        <time>2018-12-28T13:35:42Z</time>
      </trkpt>
      <trkpt lat="36.563830" lon="-116.086260">
        <ele>878.060</ele>
        <time>2018-12-28T13:36:02Z</time>
      </trkpt>
      <trkpt lat="36.563990" lon="-116.085990">
        <ele>878.441</ele>
        <time>2018-12-28T13:36:22Z</time>
      </trkpt>
      <trkpt lat="36.564190" lon="-116.085680">
        <ele>879.035</ele>
        <time>2018-12-28T13:36:42Z</time>
      </trkpt>
      <trkpt lat="36.564470" lon="-116.085260">
        <ele>880.054</ele>
        <time>2018-12-28T13:37:02Z</time>
      </trkpt>
      <trkpt lat="36.564700" lon="-116.084940">
        <ele>880.833</ele>
        <time>2018-12-28T13:37:22Z</time>
      </trkpt>
      <trkpt lat="36.564920" lon="-116.084650">
        <ele>881.413</ele>
        <time>2018-12-28T13:37:42Z</time>
      </trkpt>
      <trkpt lat="36.565270" lon="-116.084190">
        <ele>881.476</ele>
        <time>2018-12-28T13:38:02Z</time>
      </trkpt>
      <trkpt lat="36.565520" lon="-116.083900">
        <ele>882.490</ele>
        <time>2018-12-28T13:38:22Z</time>
      </trkpt>
      <trkpt lat="36.565710" lon="-116.083680">
        <ele>884.219</ele>
        <time>2018-12-28T13:38:42Z</time>
      </trkpt>
      <trkpt lat="36.565940" lon="-116.083420">
        <ele>886.108</ele>
        <time>2018-12-28T13:39:02Z</time>
      </trkpt>
      <trkpt lat="36.566470" lon="-116.082790">
        <ele>885.730</ele>
        <time>2018-12-28T13:39:22Z</time>
      </trkpt>
      <trkpt lat="36.566880" lon="-116.082320">
        <ele>884.968</ele>
        <time>2018-12-28T13:39:42Z</time>
      </trkpt>
      <trkpt lat="36.567120" lon="-116.082030">
        <ele>884.683</ele>
        <time>2018-12-28T13:40:02Z</time>
      </trkpt>
      <trkpt lat="36.567550" lon="-116.081530">
        <ele>884.684</ele>
        <time>2018-12-28T13:40:22Z</time>
      </trkpt>
      <trkpt lat="36.568900" lon="-116.079950">
        <ele>885.798</ele>
        <time>2018-12-28T13:40:42Z</time>
      </trkpt>
      <trkpt lat="36.569840" lon="-116.078870">
        <ele>890.427</ele>
        <time>2018-12-28T13:41:02Z</time>
      </trkpt>
      <trkpt lat="36.570490" lon="-116.078120">
        <ele>891.096</ele>
        <time>2018-12-28T13:41:22Z</time>
      </trkpt>
      <trkpt lat="36.571980" lon="-116.076380">
        <ele>893.516</ele>
        <time>2018-12-28T13:41:42Z</time>
      </trkpt>
      <trkpt lat="36.573060" lon="-116.075120">
        <ele>896.421</ele>
        <time>2018-12-28T13:42:02Z</time>
      </trkpt>
      <trkpt lat="36.575050" lon="-116.072810">
        <ele>900.441</ele>
        <time>2018-12-28T13:42:22Z</time>
      </trkpt>
      <trkpt lat="36.576060" lon="-116.071640">
        <ele>903.205</ele>
        <time>2018-12-28T13:42:42Z</time>
      </trkpt>
      <trkpt lat="36.576950" lon="-116.070610">
        <ele>906.008</ele>
        <time>2018-12-28T13:43:02Z</time>
      </trkpt>
      <trkpt lat="36.577660" lon="-116.069780">
        <ele>907.055</ele>
        <time>2018-12-28T13:43:22Z</time>
      </trkpt>
      <trkpt lat="36.578120" lon="-116.069240">
        <ele>907.463</ele>
        <time>2018-12-28T13:43:42Z</time>
      </trkpt>
      <trkpt lat="36.578620" lon="-116.068660">
        <ele>908.038</ele>
        <time>2018-12-28T13:44:02Z</time>
      </trkpt>
      <trkpt lat="36.579170" lon="-116.068020">
        <ele>909.449</ele>
        <time>2018-12-28T13:44:22Z</time>
      </trkpt>
      <trkpt lat="36.579720" lon="-116.067380">
        <ele>910.853</ele>
        <time>2018-12-28T13:44:42Z</time>
      </trkpt>
      <trkpt lat="36.580160" lon="-116.066870">
        <ele>912.062</ele>
        <time>2018-12-28T13:45:02Z</time>
      </trkpt>
      <trkpt lat="36.580550" lon="-116.066420">
        <ele>913.851</ele>
        <time>2018-12-28T13:45:22Z</time>
      </trkpt>
      <trkpt lat="36.580910" lon="-116.066010">
        <ele>916.241</ele>
        <time>2018-12-28T13:45:42Z</time>
      </trkpt>
      <trkpt lat="36.581240" lon="-116.065620">
        <ele>915.848</ele>
        <time>2018-12-28T13:46:02Z</time>
      </trkpt>
      <trkpt lat="36.581680" lon="-116.065100">
        <ele>915.061</ele>
        <time>2018-12-28T13:46:22Z</time>
      </trkpt>
      <trkpt lat="36.581960" lon="-116.064780">
        <ele>914.317</ele>
        <time>2018-12-28T13:46:42Z</time>
      </trkpt>
      <trkpt lat="36.582100" lon="-116.064610">
        <ele>913.808</ele>
        <time>2018-12-28T13:47:02Z</time>
      </trkpt>
      <trkpt lat="36.582250" lon="-116.064420">
        <ele>913.817</ele>
        <time>2018-12-28T13:47:22Z</time>
      </trkpt>
      <trkpt lat="36.582400" lon="-116.064230">
        <ele>913.675</ele>
        <time>2018-12-28T13:47:42Z</time>
      </trkpt>
      <trkpt lat="36.582550" lon="-116.064050">
        <ele>913.830</ele>
        <time>2018-12-28T13:48:02Z</time>
      </trkpt>
      <trkpt lat="36.582680" lon="-116.063890">
        <ele>913.851</ele>
        <time>2018-12-28T13:48:22Z</time>
      </trkpt>
      <trkpt lat="36.583050" lon="-116.063390">
        <ele>913.845</ele>
        <time>2018-12-28T13:48:42Z</time>
      </trkpt>
      <trkpt lat="36.583480" lon="-116.062790">
        <ele>914.034</ele>
        <time>2018-12-28T13:49:02Z</time>
      </trkpt>
      <trkpt lat="36.583900" lon="-116.062160">
        <ele>914.633</ele>
        <time>2018-12-28T13:49:22Z</time>
      </trkpt>
      <trkpt lat="36.584230" lon="-116.061660">
        <ele>915.593</ele>
        <time>2018-12-28T13:49:42Z</time>
      </trkpt>
      <trkpt lat="36.584540" lon="-116.061150">
        <ele>916.393</ele>
        <time>2018-12-28T13:50:02Z</time>
      </trkpt>
      <trkpt lat="36.584790" lon="-116.060710">
        <ele>916.765</ele>
        <time>2018-12-28T13:50:22Z</time>
      </trkpt>
      <trkpt lat="36.585020" lon="-116.060300">
        <ele>917.521</ele>
        <time>2018-12-28T13:50:42Z</time>
      </trkpt>
      <trkpt lat="36.585220" lon="-116.059940">
        <ele>918.708</ele>
        <time>2018-12-28T13:51:02Z</time>
      </trkpt>
      <trkpt lat="36.585350" lon="-116.059700">
        <ele>919.662</ele>
        <time>2018-12-28T13:51:22Z</time>
      </trkpt>
      <trkpt lat="36.585530" lon="-116.059340">
        <ele>920.670</ele>
        <time>2018-12-28T13:51:42Z</time>
      </trkpt>
      <trkpt lat="36.585660" lon="-116.059070">
        <ele>920.755</ele>
        <time>2018-12-28T13:52:02Z</time>
      </trkpt>
      <trkpt lat="36.585800" lon="-116.058780">
        <ele>921.026</ele>
        <time>2018-12-28T13:52:22Z</time>
      </trkpt>
      <trkpt lat="36.586050" lon="-116.058250">
        <ele>922.460</ele>
        <time>2018-12-28T13:52:42Z</time>
      </trkpt>
      <trkpt lat="36.586200" lon="-116.057900">
        <ele>923.389</ele>
        <time>2018-12-28T13:53:02Z</time>
      </trkpt>
      <trkpt lat="36.586360" lon="-116.057540">
        <ele>924.168</ele>
        <time>2018-12-28T13:53:22Z</time>
      </trkpt>
      <trkpt lat="36.586480" lon="-116.057230">
        <ele>924.648</ele>
        <time>2018-12-28T13:53:42Z</time>
      </trkpt>
      <trkpt lat="36.586700" lon="-116.056700">
        <ele>926.383</ele>
        <time>2018-12-28T13:54:02Z</time>
      </trkpt>
      <trkpt lat="36.586840" lon="-116.056330">
        <ele>927.825</ele>
        <time>2018-12-28T13:54:22Z</time>
      </trkpt>
      <trkpt lat="36.587010" lon="-116.055840">
        <ele>930.117</ele>
        <time>2018-12-28T13:54:42Z</time>
      </trkpt>
      <trkpt lat="36.587100" lon="-116.055580">
        <ele>930.908</ele>
        <time>2018-12-28T13:55:02Z</time>
      </trkpt>
      <trkpt lat="36.587280" lon="-116.055040">
        <ele>930.961</ele>
        <time>2018-12-28T13:55:22Z</time>
      </trkpt>
      <trkpt lat="36.587420" lon="-116.054590">
        <ele>931.529</ele>
        <time>2018-12-28T13:55:42Z</time>
      </trkpt>
      <trkpt lat="36.587520" lon="-116.054260">
        <ele>932.274</ele>
        <time>2018-12-28T13:56:02Z</time>
      </trkpt>
      <trkpt lat="36.587660" lon="-116.053760">
        <ele>933.755</ele>
        <time>2018-12-28T13:56:22Z</time>
      </trkpt>
      <trkpt lat="36.587760" lon="-116.053400">
        <ele>934.949</ele>
        <time>2018-12-28T13:56:42Z</time>
      </trkpt>
      <trkpt lat="36.587900" lon="-116.052850">
        <ele>936.648</ele>
        <time>2018-12-28T13:57:02Z</time>
      </trkpt>
      <trkpt lat="36.587970" lon="-116.052540">
        <ele>937.957</ele>
        <time>2018-12-28T13:57:22Z</time>
      </trkpt>
      <trkpt lat="36.588040" lon="-116.052230">
        <ele>939.257</ele>
        <time>2018-12-28T13:57:42Z</time>
      </trkpt>
      <trkpt lat="36.588090" lon="-116.052010">
        <ele>940.154</ele>
        <time>2018-12-28T13:58:02Z</time>
      </trkpt>
      <trkpt lat="36.588140" lon="-116.051780">
        <ele>940.756</ele>
        <time>2018-12-28T13:58:22Z</time>
      </trkpt>
      <trkpt lat="36.588240" lon="-116.051280">
        <ele>941.511</ele>
        <time>2018-12-28T13:58:42Z</time>
      </trkpt>
      <trkpt lat="36.588600" lon="-116.049320">
        <ele>946.408</ele>
        <time>2018-12-28T13:59:02Z</time>
      </trkpt>
      <trkpt lat="36.589620" lon="-116.043830">
        <ele>955.668</ele>
        <time>2018-12-28T13:59:22Z</time>
      </trkpt>
      <trkpt lat="36.589970" lon="-116.041960">
        <ele>957.886</ele>
        <time>2018-12-28T13:59:42Z</time>
      </trkpt>
      <trkpt lat="36.590270" lon="-116.040350">
        <ele>960.361</ele>
        <time>2018-12-28T14:00:02Z</time>
      </trkpt>
      <trkpt lat="36.590410" lon="-116.039570">
        <ele>960.932</ele>
        <time>2018-12-28T14:00:22Z</time>
      </trkpt>
      <trkpt lat="36.590590" lon="-116.038580">
        <ele>963.286</ele>
        <time>2018-12-28T14:00:42Z</time>
      </trkpt>
      <trkpt lat="36.590730" lon="-116.037840">
        <ele>964.875</ele>
        <time>2018-12-28T14:01:02Z</time>
      </trkpt>
      <trkpt lat="36.590790" lon="-116.037480">
        <ele>965.644</ele>
        <time>2018-12-28T14:01:22Z</time>
      </trkpt>
      <trkpt lat="36.590910" lon="-116.036840">
        <ele>966.854</ele>
        <time>2018-12-28T14:01:42Z</time>
      </trkpt>
      <trkpt lat="36.591070" lon="-116.035960">
        <ele>968.653</ele>
        <time>2018-12-28T14:02:02Z</time>
      </trkpt>
      <trkpt lat="36.591240" lon="-116.035070">
        <ele>971.004</ele>
        <time>2018-12-28T14:02:22Z</time>
      </trkpt>
      <trkpt lat="36.591340" lon="-116.034530">
        <ele>971.314</ele>
        <time>2018-12-28T14:02:42Z</time>
      </trkpt>
      <trkpt lat="36.591450" lon="-116.033960">
        <ele>972.408</ele>
        <time>2018-12-28T14:03:02Z</time>
      </trkpt>
      <trkpt lat="36.591570" lon="-116.033270">
        <ele>974.338</ele>
        <time>2018-12-28T14:03:22Z</time>
      </trkpt>
      <trkpt lat="36.591720" lon="-116.032470">
        <ele>976.286</ele>
        <time>2018-12-28T14:03:42Z</time>
      </trkpt>
      <trkpt lat="36.591940" lon="-116.031290">
        <ele>978.891</ele>
        <time>2018-12-28T14:04:02Z</time>
      </trkpt>
      <trkpt lat="36.592130" lon="-116.030280">
        <ele>981.672</ele>
        <time>2018-12-28T14:04:22Z</time>
      </trkpt>
      <trkpt lat="36.592260" lon="-116.029530">
        <ele>983.846</ele>
        <time>2018-12-28T14:04:42Z</time>
      </trkpt>
      <trkpt lat="36.592350" lon="-116.029090">
        <ele>985.165</ele>
        <time>2018-12-28T14:05:02Z</time>
      </trkpt>
      <trkpt lat="36.592450" lon="-116.028530">
        <ele>987.014</ele>
        <time>2018-12-28T14:05:22Z</time>
      </trkpt>
      <trkpt lat="36.592570" lon="-116.027870">
        <ele>989.474</ele>
        <time>2018-12-28T14:05:42Z</time>
      </trkpt>
      <trkpt lat="36.592700" lon="-116.027170">
        <ele>991.782</ele>
        <time>2018-12-28T14:06:02Z</time>
      </trkpt>
      <trkpt lat="36.592780" lon="-116.026740">
        <ele>992.943</ele>
        <time>2018-12-28T14:06:22Z</time>
      </trkpt>
      <trkpt lat="36.592900" lon="-116.026090">
        <ele>995.017</ele>
        <time>2018-12-28T14:06:42Z</time>
      </trkpt>
      <trkpt lat="36.593150" lon="-116.024740">
        <ele>1000.708</ele>
        <time>2018-12-28T14:07:02Z</time>
      </trkpt>
      <trkpt lat="36.593240" lon="-116.024220">
        <ele>1001.961</ele>
        <time>2018-12-28T14:07:22Z</time>
      </trkpt>
      <trkpt lat="36.593380" lon="-116.023490">
        <ele>1004.119</ele>
        <time>2018-12-28T14:07:42Z</time>
      </trkpt>
      <trkpt lat="36.593450" lon="-116.023090">
        <ele>1005.494</ele>
        <time>2018-12-28T14:08:02Z</time>
      </trkpt>
      <trkpt lat="36.593520" lon="-116.022740">
        <ele>1006.415</ele>
        <time>2018-12-28T14:08:22Z</time>
      </trkpt>
      <trkpt lat="36.593550" lon="-116.022570">
        <ele>1007.199</ele>
        <time>2018-12-28T14:08:42Z</time>
      </trkpt>
      <trkpt lat="36.593610" lon="-116.022270">
        <ele>1008.068</ele>
        <time>2018-12-28T14:09:02Z</time>
      </trkpt>
      <trkpt lat="36.593660" lon="-116.021960">
        <ele>1009.067</ele>
        <time>2018-12-28T14:09:22Z</time>
      </trkpt>
      <trkpt lat="36.593850" lon="-116.020950">
        <ele>1012.197</ele>
        <time>2018-12-28T14:09:42Z</time>
      </trkpt>
      <trkpt lat="36.594000" lon="-116.020110">
        <ele>1014.771</ele>
        <time>2018-12-28T14:10:02Z</time>
      </trkpt>
      <trkpt lat="36.594170" lon="-116.019190">
        <ele>1017.441</ele>
        <time>2018-12-28T14:10:22Z</time>
      </trkpt>
      <trkpt lat="36.594370" lon="-116.018150">
        <ele>1020.615</ele>
        <time>2018-12-28T14:10:42Z</time>
      </trkpt>
      <trkpt lat="36.594620" lon="-116.016770">
        <ele>1023.508</ele>
        <time>2018-12-28T14:11:02Z</time>
      </trkpt>
      <trkpt lat="36.594750" lon="-116.016070">
        <ele>1025.490</ele>
        <time>2018-12-28T14:11:22Z</time>
      </trkpt>
      <trkpt lat="36.594900" lon="-116.015280">
        <ele>1028.688</ele>
        <time>2018-12-28T14:11:42Z</time>
      </trkpt>
      <trkpt lat="36.595060" lon="-116.014390">
        <ele>1031.013</ele>
        <time>2018-12-28T14:12:02Z</time>
      </trkpt>
      <trkpt lat="36.595160" lon="-116.013850">
        <ele>1031.834</ele>
        <time>2018-12-28T14:12:22Z</time>
      </trkpt>
      <trkpt lat="36.595270" lon="-116.013250">
        <ele>1032.968</ele>
        <time>2018-12-28T14:12:42Z</time>
      </trkpt>
      <trkpt lat="36.595340" lon="-116.012910">
        <ele>1033.767</ele>
        <time>2018-12-28T14:13:02Z</time>
      </trkpt>
      <trkpt lat="36.595370" lon="-116.012600">
        <ele>1034.176</ele>
        <time>2018-12-28T14:13:22Z</time>
      </trkpt>
      <trkpt lat="36.595410" lon="-116.012340">
        <ele>1034.766</ele>
        <time>2018-12-28T14:13:42Z</time>
      </trkpt>
      <trkpt lat="36.595450" lon="-116.012040">
        <ele>1035.493</ele>
        <time>2018-12-28T14:14:02Z</time>
      </trkpt>
      <trkpt lat="36.595500" lon="-116.011640">
        <ele>1036.565</ele>
        <time>2018-12-28T14:14:22Z</time>
      </trkpt>
      <trkpt lat="36.595530" lon="-116.011360">
        <ele>1037.321</ele>
        <time>2018-12-28T14:14:42Z</time>
      </trkpt>
      <trkpt lat="36.595560" lon="-116.011110">
        <ele>1038.208</ele>
        <time>2018-12-28T14:15:02Z</time>
      </trkpt>
      <trkpt lat="36.595590" lon="-116.010900">
        <ele>1039.122</ele>
        <time>2018-12-28T14:15:22Z</time>
      </trkpt>
      <trkpt lat="36.595620" lon="-116.010590">
        <ele>1040.390</ele>
        <time>2018-12-28T14:15:42Z</time>
      </trkpt>
      <trkpt lat="36.595660" lon="-116.010360">
        <ele>1040.875</ele>
        <time>2018-12-28T14:16:02Z</time>
      </trkpt>
      <trkpt lat="36.595680" lon="-116.010200">
        <ele>1041.056</ele>
        <time>2018-12-28T14:16:22Z</time>
      </trkpt>
      <trkpt lat="36.595700" lon="-116.010070">
        <ele>1041.160</ele>
        <time>2018-12-28T14:16:42Z</time>
      </trkpt>
      <trkpt lat="36.595720" lon="-116.009970">
        <ele>1041.179</ele>
        <time>2018-12-28T14:17:02Z</time>
      </trkpt>
      <trkpt lat="36.595730" lon="-116.009890">
        <ele>1041.188</ele>
        <time>2018-12-28T14:17:22Z</time>
      </trkpt>
      <trkpt lat="36.595790" lon="-116.009540">
        <ele>1041.278</ele>
        <time>2018-12-28T14:17:42Z</time>
      </trkpt>
      <trkpt lat="36.595850" lon="-116.009220">
        <ele>1041.231</ele>
        <time>2018-12-28T14:18:02Z</time>
      </trkpt>
      <trkpt lat="36.595960" lon="-116.008650">
        <ele>1041.961</ele>
        <time>2018-12-28T14:18:22Z</time>
      </trkpt>
      <trkpt lat="36.596310" lon="-116.006830">
        <ele>1044.207</ele>
        <time>2018-12-28T14:18:42Z</time>
      </trkpt>
      <trkpt lat="36.596510" lon="-116.005770">
        <ele>1045.708</ele>
        <time>2018-12-28T14:19:02Z</time>
      </trkpt>
      <trkpt lat="36.596680" lon="-116.004850">
        <ele>1048.116</ele>
        <time>2018-12-28T14:19:22Z</time>
      </trkpt>
      <trkpt lat="36.597040" lon="-116.002870">
        <ele>1051.074</ele>
        <time>2018-12-28T14:19:42Z</time>
      </trkpt>
      <trkpt lat="36.597240" lon="-116.001810">
        <ele>1052.189</ele>
        <time>2018-12-28T14:20:02Z</time>
      </trkpt>
      <trkpt lat="36.597290" lon="-116.001540">
        <ele>1052.840</ele>
        <time>2018-12-28T14:20:22Z</time>
      </trkpt>
      <trkpt lat="36.597350" lon="-116.001200">
        <ele>1052.994</ele>
        <time>2018-12-28T14:20:42Z</time>
      </trkpt>
      <trkpt lat="36.597460" lon="-116.000590">
        <ele>1052.993</ele>
        <time>2018-12-28T14:21:02Z</time>
      </trkpt>
      <trkpt lat="36.597560" lon="-116.000070">
        <ele>1053.272</ele>
        <time>2018-12-28T14:21:22Z</time>
      </trkpt>
      <trkpt lat="36.597630" lon="-115.999640">
        <ele>1053.542</ele>
        <time>2018-12-28T14:21:42Z</time>
      </trkpt>
      <trkpt lat="36.597750" lon="-115.998990">
        <ele>1054.011</ele>
        <time>2018-12-28T14:22:02Z</time>
      </trkpt>
      <trkpt lat="36.597850" lon="-115.998460">
        <ele>1055.421</ele>
        <time>2018-12-28T14:22:22Z</time>
      </trkpt>
      <trkpt lat="36.597920" lon="-115.998070">
        <ele>1057.003</ele>
        <time>2018-12-28T14:22:42Z</time>
      </trkpt>
      <trkpt lat="36.597970" lon="-115.997850">
        <ele>1057.908</ele>
        <time>2018-12-28T14:23:02Z</time>
      </trkpt>
      <trkpt lat="36.598000" lon="-115.997650">
        <ele>1058.834</ele>
        <time>2018-12-28T14:23:22Z</time>
      </trkpt>
      <trkpt lat="36.598020" lon="-115.997570">
        <ele>1059.382</ele>
        <time>2018-12-28T14:23:42Z</time>
      </trkpt>
      <trkpt lat="36.598070" lon="-115.997300">
        <ele>1060.567</ele>
        <time>2018-12-28T14:24:02Z</time>
      </trkpt>
      <trkpt lat="36.598450" lon="-115.995240">
        <ele>1062.658</ele>
        <time>2018-12-28T14:24:22Z</time>
      </trkpt>
      <trkpt lat="36.598640" lon="-115.994240">
        <ele>1063.212</ele>
        <time>2018-12-28T14:24:42Z</time>
      </trkpt>
      <trkpt lat="36.598780" lon="-115.993450">
        <ele>1063.971</ele>
        <time>2018-12-28T14:25:02Z</time>
      </trkpt>
      <trkpt lat="36.598880" lon="-115.992900">
        <ele>1064.340</ele>
        <time>2018-12-28T14:25:22Z</time>
      </trkpt>
      <trkpt lat="36.598980" lon="-115.992370">
        <ele>1064.470</ele>
        <time>2018-12-28T14:25:42Z</time>
      </trkpt>
      <trkpt lat="36.599100" lon="-115.991720">
        <ele>1064.841</ele>
        <time>2018-12-28T14:26:02Z</time>
      </trkpt>
      <trkpt lat="36.599200" lon="-115.991170">
        <ele>1065.481</ele>
        <time>2018-12-28T14:26:22Z</time>
      </trkpt>
      <trkpt lat="36.599290" lon="-115.990660">
        <ele>1066.109</ele>
        <time>2018-12-28T14:26:42Z</time>
      </trkpt>
      <trkpt lat="36.599380" lon="-115.990160">
        <ele>1066.808</ele>
        <time>2018-12-28T14:27:02Z</time>
      </trkpt>
      <trkpt lat="36.599490" lon="-115.989600">
        <ele>1067.117</ele>
        <time>2018-12-28T14:27:22Z</time>
      </trkpt>
      <trkpt lat="36.599540" lon="-115.989340">
        <ele>1068.055</ele>
        <time>2018-12-28T14:27:42Z</time>
      </trkpt>
      <trkpt lat="36.599590" lon="-115.989080">
        <ele>1068.750</ele>
        <time>2018-12-28T14:28:02Z</time>
      </trkpt>
      <trkpt lat="36.599760" lon="-115.988160">
        <ele>1069.351</ele>
        <time>2018-12-28T14:28:22Z</time>
      </trkpt>
      <trkpt lat="36.599980" lon="-115.986950">
        <ele>1068.435</ele>
        <time>2018-12-28T14:28:42Z</time>
      </trkpt>
      <trkpt lat="36.600250" lon="-115.985470">
        <ele>1066.534</ele>
        <time>2018-12-28T14:29:02Z</time>
      </trkpt>
      <trkpt lat="36.600560" lon="-115.983780">
        <ele>1069.943</ele>
        <time>2018-12-28T14:29:22Z</time>
      </trkpt>
      <trkpt lat="36.600750" lon="-115.982760">
        <ele>1070.843</ele>
        <time>2018-12-28T14:29:42Z</time>
      </trkpt>
      <trkpt lat="36.600830" lon="-115.982300">
        <ele>1071.169</ele>
        <time>2018-12-28T14:30:02Z</time>
      </trkpt>
      <trkpt lat="36.600910" lon="-115.981900">
        <ele>1071.704</ele>
        <time>2018-12-28T14:30:22Z</time>
      </trkpt>
      <trkpt lat="36.600960" lon="-115.981620">
        <ele>1072.524</ele>
        <time>2018-12-28T14:30:42Z</time>
      </trkpt>
      <trkpt lat="36.601000" lon="-115.981370">
        <ele>1072.908</ele>
        <time>2018-12-28T14:31:02Z</time>
      </trkpt>
      <trkpt lat="36.601040" lon="-115.981110">
        <ele>1073.199</ele>
        <time>2018-12-28T14:31:22Z</time>
      </trkpt>
      <trkpt lat="36.601080" lon="-115.980820">
        <ele>1073.447</ele>
        <time>2018-12-28T14:31:42Z</time>
      </trkpt>
      <trkpt lat="36.601130" lon="-115.980550">
        <ele>1073.662</ele>
        <time>2018-12-28T14:32:02Z</time>
      </trkpt>
      <trkpt lat="36.601160" lon="-115.980290">
        <ele>1074.173</ele>
        <time>2018-12-28T14:32:22Z</time>
      </trkpt>
      <trkpt lat="36.601200" lon="-115.980030">
        <ele>1074.777</ele>
        <time>2018-12-28T14:32:42Z</time>
      </trkpt>
      <trkpt lat="36.601230" lon="-115.979760">
        <ele>1075.276</ele>
        <time>2018-12-28T14:33:02Z</time>
      </trkpt>
      <trkpt lat="36.601280" lon="-115.979360">
        <ele>1076.155</ele>
        <time>2018-12-28T14:33:22Z</time>
      </trkpt>
      <trkpt lat="36.601330" lon="-115.978960">
        <ele>1077.325</ele>
        <time>2018-12-28T14:33:42Z</time>
      </trkpt>
      <trkpt lat="36.601370" lon="-115.978560">
        <ele>1078.489</ele>
        <time>2018-12-28T14:34:02Z</time>
      </trkpt>
      <trkpt lat="36.601410" lon="-115.978020">
        <ele>1079.706</ele>
        <time>2018-12-28T14:34:22Z</time>
      </trkpt>
      <trkpt lat="36.601450" lon="-115.977480">
        <ele>1080.726</ele>
        <time>2018-12-28T14:34:42Z</time>
      </trkpt>
      <trkpt lat="36.601480" lon="-115.977050">
        <ele>1080.908</ele>
        <time>2018-12-28T14:35:02Z</time>
      </trkpt>
      <trkpt lat="36.601510" lon="-115.976520">
        <ele>1082.241</ele>
        <time>2018-12-28T14:35:22Z</time>
      </trkpt>
      <trkpt lat="36.601530" lon="-115.975980">
        <ele>1086.189</ele>
        <time>2018-12-28T14:35:42Z</time>
      </trkpt>
      <trkpt lat="36.601540" lon="-115.975580">
        <ele>1088.394</ele>
        <time>2018-12-28T14:36:02Z</time>
      </trkpt>
      <trkpt lat="36.601550" lon="-115.975170">
        <ele>1089.445</ele>
        <time>2018-12-28T14:36:22Z</time>
      </trkpt>
      <trkpt lat="36.601550" lon="-115.974790">
        <ele>1089.489</ele>
        <time>2018-12-28T14:36:42Z</time>
      </trkpt>
      <trkpt lat="36.601560" lon="-115.974380">
        <ele>1089.128</ele>
        <time>2018-12-28T14:37:02Z</time>
      </trkpt>
      <trkpt lat="36.601550" lon="-115.973820">
        <ele>1089.037</ele>
        <time>2018-12-28T14:37:22Z</time>
      </trkpt>
      <trkpt lat="36.601540" lon="-115.973270">
        <ele>1088.677</ele>
        <time>2018-12-28T14:37:42Z</time>
      </trkpt>
      <trkpt lat="36.601520" lon="-115.972860">
        <ele>1089.045</ele>
        <time>2018-12-28T14:38:02Z</time>
      </trkpt>
      <trkpt lat="36.601510" lon="-115.972460">
        <ele>1090.247</ele>
        <time>2018-12-28T14:38:22Z</time>
      </trkpt>
      <trkpt lat="36.601470" lon="-115.971900">
        <ele>1090.811</ele>
        <time>2018-12-28T14:38:42Z</time>
      </trkpt>
      <trkpt lat="36.601440" lon="-115.971360">
        <ele>1090.808</ele>
        <time>2018-12-28T14:39:02Z</time>
      </trkpt>
      <trkpt lat="36.601400" lon="-115.970820">
        <ele>1091.057</ele>
        <time>2018-12-28T14:39:22Z</time>
      </trkpt>
      <trkpt lat="36.601370" lon="-115.970550">
        <ele>1091.095</ele>
        <time>2018-12-28T14:39:42Z</time>
      </trkpt>
      <trkpt lat="36.601350" lon="-115.970290">
        <ele>1091.130</ele>
        <time>2018-12-28T14:40:02Z</time>
      </trkpt>
      <trkpt lat="36.601330" lon="-115.970140">
        <ele>1091.141</ele>
        <time>2018-12-28T14:40:22Z</time>
      </trkpt>
      <trkpt lat="36.601320" lon="-115.970000">
        <ele>1091.415</ele>
        <time>2018-12-28T14:40:42Z</time>
      </trkpt>
      <trkpt lat="36.601290" lon="-115.969740">
        <ele>1092.154</ele>
        <time>2018-12-28T14:41:02Z</time>
      </trkpt>
      <trkpt lat="36.601270" lon="-115.969590">
        <ele>1092.693</ele>
        <time>2018-12-28T14:41:22Z</time>
      </trkpt>
      <trkpt lat="36.601240" lon="-115.969330">
        <ele>1093.123</ele>
        <time>2018-12-28T14:41:42Z</time>
      </trkpt>
      <trkpt lat="36.601200" lon="-115.969070">
        <ele>1093.835</ele>
        <time>2018-12-28T14:42:02Z</time>
      </trkpt>
      <trkpt lat="36.601170" lon="-115.968800">
        <ele>1094.886</ele>
        <time>2018-12-28T14:42:22Z</time>
      </trkpt>
      <trkpt lat="36.601100" lon="-115.968390">
        <ele>1096.314</ele>
        <time>2018-12-28T14:42:42Z</time>
      </trkpt>
      <trkpt lat="36.601020" lon="-115.967860">
        <ele>1098.408</ele>
        <time>2018-12-28T14:43:02Z</time>
      </trkpt>
      <trkpt lat="36.600940" lon="-115.967450">
        <ele>1099.976</ele>
        <time>2018-12-28T14:43:22Z</time>
      </trkpt>
      <trkpt lat="36.600920" lon="-115.967310">
        <ele>1100.334</ele>
        <time>2018-12-28T14:43:42Z</time>
      </trkpt>
      <trkpt lat="36.600880" lon="-115.967060">
        <ele>1100.699</ele>
        <time>2018-12-28T14:44:02Z</time>
      </trkpt>
      <trkpt lat="36.600830" lon="-115.966790">
        <ele>1100.730</ele>
        <time>2018-12-28T14:44:22Z</time>
      </trkpt>
      <trkpt lat="36.600780" lon="-115.966520">
        <ele>1101.074</ele>
        <time>2018-12-28T14:44:42Z</time>
      </trkpt>
      <trkpt lat="36.600730" lon="-115.966280">
        <ele>1101.033</ele>
        <time>2018-12-28T14:45:02Z</time>
      </trkpt>
      <trkpt lat="36.600700" lon="-115.966130">
        <ele>1101.162</ele>
        <time>2018-12-28T14:45:22Z</time>
      </trkpt>
      <trkpt lat="36.600620" lon="-115.965730">
        <ele>1101.642</ele>
        <time>2018-12-28T14:45:42Z</time>
      </trkpt>
      <trkpt lat="36.600560" lon="-115.965470">
        <ele>1102.344</ele>
        <time>2018-12-28T14:46:02Z</time>
      </trkpt>
      <trkpt lat="36.600500" lon="-115.965190">
        <ele>1102.905</ele>
        <time>2018-12-28T14:46:22Z</time>
      </trkpt>
      <trkpt lat="36.600450" lon="-115.964980">
        <ele>1103.115</ele>
        <time>2018-12-28T14:46:42Z</time>
      </trkpt>
      <trkpt lat="36.600410" lon="-115.964820">
        <ele>1103.408</ele>
        <time>2018-12-28T14:47:02Z</time>
      </trkpt>
      <trkpt lat="36.600310" lon="-115.964420">
        <ele>1104.437</ele>
        <time>2018-12-28T14:47:22Z</time>
      </trkpt>
      <trkpt lat="36.600210" lon="-115.964030">
        <ele>1105.135</ele>
        <time>2018-12-28T14:47:42Z</time>
      </trkpt>
      <trkpt lat="36.600110" lon="-115.963640">
        <ele>1106.020</ele>
        <time>2018-12-28T14:48:02Z</time>
      </trkpt>
      <trkpt lat="36.600000" lon="-115.963260">
        <ele>1106.681</ele>
        <time>2018-12-28T14:48:22Z</time>
      </trkpt>
      <trkpt lat="36.599930" lon="-115.963000">
        <ele>1106.865</ele>
        <time>2018-12-28T14:48:42Z</time>
      </trkpt>
      <trkpt lat="36.599810" lon="-115.962620">
        <ele>1107.274</ele>
        <time>2018-12-28T14:49:02Z</time>
      </trkpt>
      <trkpt lat="36.599700" lon="-115.962240">
        <ele>1108.173</ele>
        <time>2018-12-28T14:49:22Z</time>
      </trkpt>
      <trkpt lat="36.599620" lon="-115.961980">
        <ele>1108.783</ele>
        <time>2018-12-28T14:49:42Z</time>
      </trkpt>
      <trkpt lat="36.599550" lon="-115.961730">
        <ele>1109.119</ele>
        <time>2018-12-28T14:50:02Z</time>
      </trkpt>
      <trkpt lat="36.599480" lon="-115.961480">
        <ele>1109.409</ele>
        <time>2018-12-28T14:50:22Z</time>
      </trkpt>
      <trkpt lat="36.599360" lon="-115.961090">
        <ele>1110.019</ele>
        <time>2018-12-28T14:50:42Z</time>
      </trkpt>
      <trkpt lat="36.599250" lon="-115.960700">
        <ele>1110.208</ele>
        <time>2018-12-28T14:51:02Z</time>
      </trkpt>
      <trkpt lat="36.599060" lon="-115.960070">
        <ele>1110.844</ele>
        <time>2018-12-28T14:51:22Z</time>
      </trkpt>
      <trkpt lat="36.598910" lon="-115.959550">
        <ele>1111.182</ele>
        <time>2018-12-28T14:51:42Z</time>
      </trkpt>
      <trkpt lat="36.598790" lon="-115.959160">
        <ele>1111.147</ele>
        <time>2018-12-28T14:52:02Z</time>
      </trkpt>
      <trkpt lat="36.598640" lon="-115.958660">
        <ele>1111.448</ele>
        <time>2018-12-28T14:52:22Z</time>
      </trkpt>
      <trkpt lat="36.598450" lon="-115.958010">
        <ele>1111.412</ele>
        <time>2018-12-28T14:52:42Z</time>
      </trkpt>
      <trkpt lat="36.598370" lon="-115.957730">
        <ele>1111.251</ele>
        <time>2018-12-28T14:53:02Z</time>
      </trkpt>
      <trkpt lat="36.598030" lon="-115.956600">
        <ele>1111.540</ele>
        <time>2018-12-28T14:53:22Z</time>
      </trkpt>
      <trkpt lat="36.597690" lon="-115.955450">
        <ele>1111.930</ele>
        <time>2018-12-28T14:53:42Z</time>
      </trkpt>
      <trkpt lat="36.597390" lon="-115.954430">
        <ele>1112.474</ele>
        <time>2018-12-28T14:54:02Z</time>
      </trkpt>
      <trkpt lat="36.597150" lon="-115.953660">
        <ele>1113.556</ele>
        <time>2018-12-28T14:54:22Z</time>
      </trkpt>
      <trkpt lat="36.597000" lon="-115.953120">
        <ele>1113.321</ele>
        <time>2018-12-28T14:54:42Z</time>
      </trkpt>
      <trkpt lat="36.596850" lon="-115.952630">
        <ele>1113.708</ele>
        <time>2018-12-28T14:55:02Z</time>
      </trkpt>
      <trkpt lat="36.596700" lon="-115.952130">
        <ele>1114.640</ele>
        <time>2018-12-28T14:55:22Z</time>
      </trkpt>
      <trkpt lat="36.596540" lon="-115.951600">
        <ele>1114.728</ele>
        <time>2018-12-28T14:55:42Z</time>
      </trkpt>
      <trkpt lat="36.596390" lon="-115.951090">
        <ele>1114.783</ele>
        <time>2018-12-28T14:56:02Z</time>
      </trkpt>
      <trkpt lat="36.596240" lon="-115.950580">
        <ele>1114.874</ele>
        <time>2018-12-28T14:56:22Z</time>
      </trkpt>
      <trkpt lat="36.596120" lon="-115.950190">
        <ele>1115.168</ele>
        <time>2018-12-28T14:56:42Z</time>
      </trkpt>
      <trkpt lat="36.596000" lon="-115.949810">
        <ele>1115.657</ele>
        <time>2018-12-28T14:57:02Z</time>
      </trkpt>
      <trkpt lat="36.595930" lon="-115.949560">
        <ele>1115.736</ele>
        <time>2018-12-28T14:57:22Z</time>
      </trkpt>
      <trkpt lat="36.595890" lon="-115.949430">
        <ele>1115.336</ele>
        <time>2018-12-28T14:57:42Z</time>
      </trkpt>
      <trkpt lat="36.595860" lon="-115.949310">
        <ele>1115.064</ele>
        <time>2018-12-28T14:58:02Z</time>
      </trkpt>
      <trkpt lat="36.595820" lon="-115.949170">
        <ele>1114.506</ele>
        <time>2018-12-28T14:58:22Z</time>
      </trkpt>
      <trkpt lat="36.595750" lon="-115.948920">
        <ele>1113.716</ele>
        <time>2018-12-28T14:58:42Z</time>
      </trkpt>
      <trkpt lat="36.595670" lon="-115.948650">
        <ele>1113.308</ele>
        <time>2018-12-28T14:59:02Z</time>
      </trkpt>
      <trkpt lat="36.595590" lon="-115.948400">
        <ele>1113.359</ele>
        <time>2018-12-28T14:59:22Z</time>
      </trkpt>
      <trkpt lat="36.595520" lon="-115.948150">
        <ele>1113.427</ele>
        <time>2018-12-28T14:59:42Z</time>
      </trkpt>
      <trkpt lat="36.595440" lon="-115.947880">
        <ele>1113.372</ele>
        <time>2018-12-28T15:00:02Z</time>
      </trkpt>
      <trkpt lat="36.595330" lon="-115.947520">
        <ele>1113.413</ele>
        <time>2018-12-28T15:00:22Z</time>
      </trkpt>
      <trkpt lat="36.595250" lon="-115.947250">
        <ele>1113.457</ele>
        <time>2018-12-28T15:00:42Z</time>
      </trkpt>
      <trkpt lat="36.595170" lon="-115.946990">
        <ele>1113.666</ele>
        <time>2018-12-28T15:01:02Z</time>
      </trkpt>
      <trkpt lat="36.595020" lon="-115.946480">
        <ele>1113.695</ele>
        <time>2018-12-28T15:01:22Z</time>
      </trkpt>
      <trkpt lat="36.594910" lon="-115.946100">
        <ele>1113.655</ele>
        <time>2018-12-28T15:01:42Z</time>
      </trkpt>
      <trkpt lat="36.594750" lon="-115.945590">
        <ele>1113.776</ele>
        <time>2018-12-28T15:02:02Z</time>
      </trkpt>
      <trkpt lat="36.594600" lon="-115.945070">
        <ele>1113.690</ele>
        <time>2018-12-28T15:02:22Z</time>
      </trkpt>
      <trkpt lat="36.594480" lon="-115.944690">
        <ele>1113.919</ele>
        <time>2018-12-28T15:02:42Z</time>
      </trkpt>
      <trkpt lat="36.594330" lon="-115.944170">
        <ele>1113.808</ele>
        <time>2018-12-28T15:03:02Z</time>
      </trkpt>
      <trkpt lat="36.594220" lon="-115.943780">
        <ele>1113.590</ele>
        <time>2018-12-28T15:03:22Z</time>
      </trkpt>
      <trkpt lat="36.594110" lon="-115.943420">
        <ele>1113.248</ele>
        <time>2018-12-28T15:03:42Z</time>
      </trkpt>
      <trkpt lat="36.593910" lon="-115.942760">
        <ele>1113.153</ele>
        <time>2018-12-28T15:04:02Z</time>
      </trkpt>
      <trkpt lat="36.593760" lon="-115.942240">
        <ele>1113.054</ele>
        <time>2018-12-28T15:04:22Z</time>
      </trkpt>
      <trkpt lat="36.593490" lon="-115.941350">
        <ele>1113.158</ele>
        <time>2018-12-28T15:04:42Z</time>
      </trkpt>
      <trkpt lat="36.593340" lon="-115.940830">
        <ele>1112.687</ele>
        <time>2018-12-28T15:05:02Z</time>
      </trkpt>
      <trkpt lat="36.593300" lon="-115.940710">
        <ele>1112.496</ele>
        <time>2018-12-28T15:05:22Z</time>
      </trkpt>
      <trkpt lat="36.593260" lon="-115.940580">
        <ele>1112.346</ele>
        <time>2018-12-28T15:05:42Z</time>
      </trkpt>
      <trkpt lat="36.592960" lon="-115.939550">
        <ele>1111.086</ele>
        <time>2018-12-28T15:06:02Z</time>
      </trkpt>
      <trkpt lat="36.592730" lon="-115.938770">
        <ele>1110.860</ele>
        <time>2018-12-28T15:06:22Z</time>
      </trkpt>
      <trkpt lat="36.592540" lon="-115.938140">
        <ele>1110.826</ele>
        <time>2018-12-28T15:06:42Z</time>
      </trkpt>
      <trkpt lat="36.592390" lon="-115.937630">
        <ele>1110.808</ele>
        <time>2018-12-28T15:07:02Z</time>
      </trkpt>
      <trkpt lat="36.592120" lon="-115.936750">
        <ele>1110.871</ele>
        <time>2018-12-28T15:07:22Z</time>
      </trkpt>
      <trkpt lat="36.591850" lon="-115.935840">
        <ele>1110.839</ele>
        <time>2018-12-28T15:07:42Z</time>
      </trkpt>
      <trkpt lat="36.591440" lon="-115.934430">
        <ele>1110.794</ele>
        <time>2018-12-28T15:08:02Z</time>
      </trkpt>
      <trkpt lat="36.591250" lon="-115.933790">
        <ele>1109.875</ele>
        <time>2018-12-28T15:08:22Z</time>
      </trkpt>
      <trkpt lat="36.591140" lon="-115.933400">
        <ele>1109.689</ele>
        <time>2018-12-28T15:08:42Z</time>
      </trkpt>
      <trkpt lat="36.590860" lon="-115.932490">
        <ele>1109.318</ele>
        <time>2018-12-28T15:09:02Z</time>
      </trkpt>
      <trkpt lat="36.590600" lon="-115.931610">
        <ele>1109.067</ele>
        <time>2018-12-28T15:09:22Z</time>
      </trkpt>
      <trkpt lat="36.590330" lon="-115.930700">
        <ele>1108.957</ele>
        <time>2018-12-28T15:09:42Z</time>
      </trkpt>
      <trkpt lat="36.590180" lon="-115.930200">
        <ele>1108.755</ele>
        <time>2018-12-28T15:10:02Z</time>
      </trkpt>
      <trkpt lat="36.589950" lon="-115.929430">
        <ele>1108.707</ele>
        <time>2018-12-28T15:10:22Z</time>
      </trkpt>
      <trkpt lat="36.589830" lon="-115.929040">
        <ele>1108.817</ele>
        <time>2018-12-28T15:10:42Z</time>
      </trkpt>
      <trkpt lat="36.589640" lon="-115.928400">
        <ele>1108.608</ele>
        <time>2018-12-28T15:11:02Z</time>
      </trkpt>
      <trkpt lat="36.589410" lon="-115.927620">
        <ele>1108.548</ele>
        <time>2018-12-28T15:11:22Z</time>
      </trkpt>
      <trkpt lat="36.589180" lon="-115.926850">
        <ele>1108.366</ele>
        <time>2018-12-28T15:11:42Z</time>
      </trkpt>
      <trkpt lat="36.588990" lon="-115.926230">
        <ele>1108.281</ele>
        <time>2018-12-28T15:12:02Z</time>
      </trkpt>
      <trkpt lat="36.588800" lon="-115.925580">
        <ele>1108.392</ele>
        <time>2018-12-28T15:12:22Z</time>
      </trkpt>
      <trkpt lat="36.588610" lon="-115.924940">
        <ele>1108.296</ele>
        <time>2018-12-28T15:12:42Z</time>
      </trkpt>
      <trkpt lat="36.588460" lon="-115.924420">
        <ele>1108.315</ele>
        <time>2018-12-28T15:13:02Z</time>
      </trkpt>
      <trkpt lat="36.588270" lon="-115.923790">
        <ele>1108.344</ele>
        <time>2018-12-28T15:13:22Z</time>
      </trkpt>
      <trkpt lat="36.588150" lon="-115.923390">
        <ele>1108.264</ele>
        <time>2018-12-28T15:13:42Z</time>
      </trkpt>
      <trkpt lat="36.588040" lon="-115.923010">
        <ele>1108.235</ele>
        <time>2018-12-28T15:14:02Z</time>
      </trkpt>
      <trkpt lat="36.587850" lon="-115.922370">
        <ele>1108.186</ele>
        <time>2018-12-28T15:14:22Z</time>
      </trkpt>
      <trkpt lat="36.587630" lon="-115.921610">
        <ele>1107.714</ele>
        <time>2018-12-28T15:14:42Z</time>
      </trkpt>
      <trkpt lat="36.587200" lon="-115.920190">
        <ele>1107.408</ele>
        <time>2018-12-28T15:15:02Z</time>
      </trkpt>
      <trkpt lat="36.586830" lon="-115.918920">
        <ele>1107.486</ele>
        <time>2018-12-28T15:15:22Z</time>
      </trkpt>
      <trkpt lat="36.586560" lon="-115.918020">
        <ele>1107.244</ele>
        <time>2018-12-28T15:15:42Z</time>
      </trkpt>
      <trkpt lat="36.586240" lon="-115.916950">
        <ele>1107.099</ele>
        <time>2018-12-28T15:16:02Z</time>
      </trkpt>
      <trkpt lat="36.585990" lon="-115.916100">
        <ele>1106.850</ele>
        <time>2018-12-28T15:16:22Z</time>
      </trkpt>
      <trkpt lat="36.585600" lon="-115.914800">
        <ele>1106.634</ele>
        <time>2018-12-28T15:16:42Z</time>
      </trkpt>
      <trkpt lat="36.585330" lon="-115.913910">
        <ele>1106.553</ele>
        <time>2018-12-28T15:17:02Z</time>
      </trkpt>
      <trkpt lat="36.585110" lon="-115.913140">
        <ele>1106.072</ele>
        <time>2018-12-28T15:17:22Z</time>
      </trkpt>
      <trkpt lat="36.584880" lon="-115.912370">
        <ele>1105.252</ele>
        <time>2018-12-28T15:17:42Z</time>
      </trkpt>
      <trkpt lat="36.584620" lon="-115.911480">
        <ele>1104.635</ele>
        <time>2018-12-28T15:18:02Z</time>
      </trkpt>
      <trkpt lat="36.584340" lon="-115.910560">
        <ele>1104.186</ele>
        <time>2018-12-28T15:18:22Z</time>
      </trkpt>
      <trkpt lat="36.584120" lon="-115.909800">
        <ele>1103.614</ele>
        <time>2018-12-28T15:18:42Z</time>
      </trkpt>
      <trkpt lat="36.583930" lon="-115.909160">
        <ele>1103.308</ele>
        <time>2018-12-28T15:19:02Z</time>
      </trkpt>
      <trkpt lat="36.583660" lon="-115.908260">
        <ele>1103.196</ele>
        <time>2018-12-28T15:19:22Z</time>
      </trkpt>
      <trkpt lat="36.583350" lon="-115.907240">
        <ele>1102.934</ele>
        <time>2018-12-28T15:19:42Z</time>
      </trkpt>
      <trkpt lat="36.583040" lon="-115.906210">
        <ele>1102.969</ele>
        <time>2018-12-28T15:20:02Z</time>
      </trkpt>
      <trkpt lat="36.582670" lon="-115.904940">
        <ele>1102.580</ele>
        <time>2018-12-28T15:20:22Z</time>
      </trkpt>
      <trkpt lat="36.582470" lon="-115.904290">
        <ele>1101.834</ele>
        <time>2018-12-28T15:20:42Z</time>
      </trkpt>
      <trkpt lat="36.582210" lon="-115.903400">
        <ele>1101.023</ele>
        <time>2018-12-28T15:21:02Z</time>
      </trkpt>
      <trkpt lat="36.582020" lon="-115.902750">
        <ele>1101.012</ele>
        <time>2018-12-28T15:21:22Z</time>
      </trkpt>
      <trkpt lat="36.581860" lon="-115.902240">
        <ele>1101.062</ele>
        <time>2018-12-28T15:21:42Z</time>
      </trkpt>
      <trkpt lat="36.581670" lon="-115.901580">
        <ele>1100.287</ele>
        <time>2018-12-28T15:22:02Z</time>
      </trkpt>
      <trkpt lat="36.581600" lon="-115.901330">
        <ele>1099.842</ele>
        <time>2018-12-28T15:22:22Z</time>
      </trkpt>
      <trkpt lat="36.581380" lon="-115.900580">
        <ele>1099.126</ele>
        <time>2018-12-28T15:22:42Z</time>
      </trkpt>
      <trkpt lat="36.581140" lon="-115.899800">
        <ele>1099.208</ele>
        <time>2018-12-28T15:23:02Z</time>
      </trkpt>
      <trkpt lat="36.580950" lon="-115.899160">
        <ele>1098.941</ele>
        <time>2018-12-28T15:23:22Z</time>
      </trkpt>
      <trkpt lat="36.580600" lon="-115.898000">
        <ele>1098.549</ele>
        <time>2018-12-28T15:23:42Z</time>
      </trkpt>
      <trkpt lat="36.580110" lon="-115.896340">
        <ele>1097.664</ele>
        <time>2018-12-28T15:24:02Z</time>
      </trkpt>
      <trkpt lat="36.579760" lon="-115.895170">
        <ele>1096.925</ele>
        <time>2018-12-28T15:24:22Z</time>
      </trkpt>
      <trkpt lat="36.579430" lon="-115.894030">
        <ele>1095.099</ele>
        <time>2018-12-28T15:24:42Z</time>
      </trkpt>
      <trkpt lat="36.579160" lon="-115.893130">
        <ele>1093.448</ele>
        <time>2018-12-28T15:25:02Z</time>
      </trkpt>
      <trkpt lat="36.578900" lon="-115.892230">
        <ele>1091.577</ele>
        <time>2018-12-28T15:25:22Z</time>
      </trkpt>
      <trkpt lat="36.578750" lon="-115.891720">
        <ele>1091.447</ele>
        <time>2018-12-28T15:25:42Z</time>
      </trkpt>
      <trkpt lat="36.578430" lon="-115.890680">
        <ele>1092.567</ele>
        <time>2018-12-28T15:26:02Z</time>
      </trkpt>
      <trkpt lat="36.578090" lon="-115.889540">
        <ele>1092.681</ele>
        <time>2018-12-28T15:26:22Z</time>
      </trkpt>
      <trkpt lat="36.577820" lon="-115.888650">
        <ele>1092.319</ele>
        <time>2018-12-28T15:26:42Z</time>
      </trkpt>
      <trkpt lat="36.577450" lon="-115.887370">
        <ele>1091.108</ele>
        <time>2018-12-28T15:27:02Z</time>
      </trkpt>
      <trkpt lat="36.577260" lon="-115.886740">
        <ele>1090.839</ele>
        <time>2018-12-28T15:27:22Z</time>
      </trkpt>
      <trkpt lat="36.577160" lon="-115.886410">
        <ele>1090.867</ele>
        <time>2018-12-28T15:27:42Z</time>
      </trkpt>
      <trkpt lat="36.576840" lon="-115.885320">
        <ele>1088.752</ele>
        <time>2018-12-28T15:28:02Z</time>
      </trkpt>
      <trkpt lat="36.576500" lon="-115.884170">
        <ele>1087.843</ele>
        <time>2018-12-28T15:28:22Z</time>
      </trkpt>
      <trkpt lat="36.576010" lon="-115.882510">
        <ele>1087.547</ele>
        <time>2018-12-28T15:28:42Z</time>
      </trkpt>
      <trkpt lat="36.575660" lon="-115.881360">
        <ele>1086.756</ele>
        <time>2018-12-28T15:29:02Z</time>
      </trkpt>
      <trkpt lat="36.575050" lon="-115.879290">
        <ele>1085.685</ele>
        <time>2018-12-28T15:29:22Z</time>
      </trkpt>
      <trkpt lat="36.574730" lon="-115.878240">
        <ele>1084.175</ele>
        <time>2018-12-28T15:29:42Z</time>
      </trkpt>
      <trkpt lat="36.574680" lon="-115.878020">
        <ele>1084.056</ele>
        <time>2018-12-28T15:30:02Z</time>
      </trkpt>
      <trkpt lat="36.574600" lon="-115.877760">
        <ele>1083.959</ele>
        <time>2018-12-28T15:30:22Z</time>
      </trkpt>
      <trkpt lat="36.574530" lon="-115.877510">
        <ele>1083.914</ele>
        <time>2018-12-28T15:30:42Z</time>
      </trkpt>
      <trkpt lat="36.574420" lon="-115.877140">
        <ele>1083.708</ele>
        <time>2018-12-28T15:31:02Z</time>
      </trkpt>
      <trkpt lat="36.574380" lon="-115.877010">
        <ele>1083.748</ele>
        <time>2018-12-28T15:31:22Z</time>
      </trkpt>
      <trkpt lat="36.574340" lon="-115.876850">
        <ele>1083.766</ele>
        <time>2018-12-28T15:31:42Z</time>
      </trkpt>
      <trkpt lat="36.574230" lon="-115.876480">
        <ele>1084.111</ele>
        <time>2018-12-28T15:32:02Z</time>
      </trkpt>
      <trkpt lat="36.574090" lon="-115.875950">
        <ele>1084.292</ele>
        <time>2018-12-28T15:32:22Z</time>
      </trkpt>
      <trkpt lat="36.574000" lon="-115.875580">
        <ele>1084.626</ele>
        <time>2018-12-28T15:32:42Z</time>
      </trkpt>
      <trkpt lat="36.573930" lon="-115.875310">
        <ele>1084.815</ele>
        <time>2018-12-28T15:33:02Z</time>
      </trkpt>
      <trkpt lat="36.573840" lon="-115.874920">
        <ele>1085.244</ele>
        <time>2018-12-28T15:33:22Z</time>
      </trkpt>
      <trkpt lat="36.573780" lon="-115.874660">
        <ele>1085.574</ele>
        <time>2018-12-28T15:33:42Z</time>
      </trkpt>
      <trkpt lat="36.573720" lon="-115.874390">
        <ele>1085.476</ele>
        <time>2018-12-28T15:34:02Z</time>
      </trkpt>
      <trkpt lat="36.573650" lon="-115.874020">
        <ele>1085.090</ele>
        <time>2018-12-28T15:34:22Z</time>
      </trkpt>
      <trkpt lat="36.573560" lon="-115.873580">
        <ele>1083.919</ele>
        <time>2018-12-28T15:34:42Z</time>
      </trkpt>
      <trkpt lat="36.573480" lon="-115.873190">
        <ele>1084.108</ele>
        <time>2018-12-28T15:35:02Z</time>
      </trkpt>
      <trkpt lat="36.573430" lon="-115.872920">
        <ele>1084.350</ele>
        <time>2018-12-28T15:35:22Z</time>
      </trkpt>
      <trkpt lat="36.573340" lon="-115.872390">
        <ele>1084.328</ele>
        <time>2018-12-28T15:35:42Z</time>
      </trkpt>
      <trkpt lat="36.573280" lon="-115.872000">
        <ele>1084.273</ele>
        <time>2018-12-28T15:36:02Z</time>
      </trkpt>
      <trkpt lat="36.573220" lon="-115.871590">
        <ele>1084.024</ele>
        <time>2018-12-28T15:36:22Z</time>
      </trkpt>
      <trkpt lat="36.573180" lon="-115.871310">
        <ele>1083.998</ele>
        <time>2018-12-28T15:36:42Z</time>
      </trkpt>
      <trkpt lat="36.573150" lon="-115.871040">
        <ele>1083.617</ele>
        <time>2018-12-28T15:37:02Z</time>
      </trkpt>
      <trkpt lat="36.573090" lon="-115.870630">
        <ele>1083.586</ele>
        <time>2018-12-28T15:37:22Z</time>
      </trkpt>
      <trkpt lat="36.573020" lon="-115.869960">
        <ele>1082.966</ele>
        <time>2018-12-28T15:37:42Z</time>
      </trkpt>
      <trkpt lat="36.572910" lon="-115.868880">
        <ele>1080.768</ele>
        <time>2018-12-28T15:38:02Z</time>
      </trkpt>
      <trkpt lat="36.572780" lon="-115.867660">
        <ele>1080.942</ele>
        <time>2018-12-28T15:38:22Z</time>
      </trkpt>
      <trkpt lat="36.572630" lon="-115.866180">
        <ele>1080.526</ele>
        <time>2018-12-28T15:38:42Z</time>
      </trkpt>
      <trkpt lat="36.572520" lon="-115.865090">
        <ele>1080.108</ele>
        <time>2018-12-28T15:39:02Z</time>
      </trkpt>
      <trkpt lat="36.572410" lon="-115.864150">
        <ele>1079.849</ele>
        <time>2018-12-28T15:39:22Z</time>
      </trkpt>
      <trkpt lat="36.572370" lon="-115.863750">
        <ele>1079.527</ele>
        <time>2018-12-28T15:39:42Z</time>
      </trkpt>
      <trkpt lat="36.572330" lon="-115.863340">
        <ele>1079.032</ele>
        <time>2018-12-28T15:40:02Z</time>
      </trkpt>
      <trkpt lat="36.572260" lon="-115.862650">
        <ele>1078.963</ele>
        <time>2018-12-28T15:40:22Z</time>
      </trkpt>
      <trkpt lat="36.572160" lon="-115.861710">
        <ele>1078.977</ele>
        <time>2018-12-28T15:40:42Z</time>
      </trkpt>
      <trkpt lat="36.572100" lon="-115.861170">
        <ele>1078.876</ele>
        <time>2018-12-28T15:41:02Z</time>
      </trkpt>
      <trkpt lat="36.572060" lon="-115.860760">
        <ele>1078.765</ele>
        <time>2018-12-28T15:41:22Z</time>
      </trkpt>
      <trkpt lat="36.572000" lon="-115.860210">
        <ele>1078.245</ele>
        <time>2018-12-28T15:41:42Z</time>
      </trkpt>
      <trkpt lat="36.571920" lon="-115.859410">
        <ele>1078.014</ele>
        <time>2018-12-28T15:42:02Z</time>
      </trkpt>
      <trkpt lat="36.571850" lon="-115.858730">
        <ele>1077.854</ele>
        <time>2018-12-28T15:42:22Z</time>
      </trkpt>
      <trkpt lat="36.571750" lon="-115.857800">
        <ele>1077.409</ele>
        <time>2018-12-28T15:42:42Z</time>
      </trkpt>
      <trkpt lat="36.571650" lon="-115.856840">
        <ele>1076.908</ele>
        <time>2018-12-28T15:43:02Z</time>
      </trkpt>
      <trkpt lat="36.571580" lon="-115.856170">
        <ele>1076.934</ele>
        <time>2018-12-28T15:43:22Z</time>
      </trkpt>
      <trkpt lat="36.571500" lon="-115.855350">
        <ele>1076.792</ele>
        <time>2018-12-28T15:43:42Z</time>
      </trkpt>
      <trkpt lat="36.571370" lon="-115.854140">
        <ele>1077.267</ele>
        <time>2018-12-28T15:44:02Z</time>
      </trkpt>
      <trkpt lat="36.571320" lon="-115.853720">
        <ele>1077.428</ele>
        <time>2018-12-28T15:44:22Z</time>
      </trkpt>
      <trkpt lat="36.571220" lon="-115.852780">
        <ele>1076.892</ele>
        <time>2018-12-28T15:44:42Z</time>
      </trkpt>
      <trkpt lat="36.571170" lon="-115.852230">
        <ele>1076.081</ele>
        <time>2018-12-28T15:45:02Z</time>
      </trkpt>
      <trkpt lat="36.571020" lon="-115.850740">
        <ele>1073.810</ele>
        <time>2018-12-28T15:45:22Z</time>
      </trkpt>
      <trkpt lat="36.570700" lon="-115.847730">
        <ele>1071.580</ele>
        <time>2018-12-28T15:45:42Z</time>
      </trkpt>
      <trkpt lat="36.570610" lon="-115.846810">
        <ele>1070.869</ele>
        <time>2018-12-28T15:46:02Z</time>
      </trkpt>
      <trkpt lat="36.570330" lon="-115.844110">
        <ele>1068.304</ele>
        <time>2018-12-28T15:46:22Z</time>
      </trkpt>
      <trkpt lat="36.570210" lon="-115.843020">
        <ele>1067.724</ele>
        <time>2018-12-28T15:46:42Z</time>
      </trkpt>
      <trkpt lat="36.570160" lon="-115.842510">
        <ele>1067.108</ele>
        <time>2018-12-28T15:47:02Z</time>
      </trkpt>
      <trkpt lat="36.570030" lon="-115.841260">
        <ele>1065.379</ele>
        <time>2018-12-28T15:47:22Z</time>
      </trkpt>
      <trkpt lat="36.569960" lon="-115.840580">
        <ele>1064.877</ele>
        <time>2018-12-28T15:47:42Z</time>
      </trkpt>
      <trkpt lat="36.569880" lon="-115.839770">
        <ele>1064.252</ele>
        <time>2018-12-28T15:48:02Z</time>
      </trkpt>
      <trkpt lat="36.569810" lon="-115.839100">
        <ele>1063.643</ele>
        <time>2018-12-28T15:48:22Z</time>
      </trkpt>
      <trkpt lat="36.569750" lon="-115.838550">
        <ele>1063.127</ele>
        <time>2018-12-28T15:48:42Z</time>
      </trkpt>
      <trkpt lat="36.569580" lon="-115.836930">
        <ele>1061.556</ele>
        <time>2018-12-28T15:49:02Z</time>
      </trkpt>
      <trkpt lat="36.569410" lon="-115.835300">
        <ele>1059.555</ele>
        <time>2018-12-28T15:49:22Z</time>
      </trkpt>
      <trkpt lat="36.569310" lon="-115.834350">
        <ele>1058.275</ele>
        <time>2018-12-28T15:49:42Z</time>
      </trkpt>
      <trkpt lat="36.569250" lon="-115.833810">
        <ele>1057.418</ele>
        <time>2018-12-28T15:50:02Z</time>
      </trkpt>
      <trkpt lat="36.569190" lon="-115.833140">
        <ele>1055.998</ele>
        <time>2018-12-28T15:50:22Z</time>
      </trkpt>
      <trkpt lat="36.569060" lon="-115.831920">
        <ele>1055.417</ele>
        <time>2018-12-28T15:50:42Z</time>
      </trkpt>
      <trkpt lat="36.568930" lon="-115.830700">
        <ele>1052.908</ele>
        <time>2018-12-28T15:51:02Z</time>
      </trkpt>
      <trkpt lat="36.568800" lon="-115.829480">
        <ele>1051.324</ele>
        <time>2018-12-28T15:51:22Z</time>
      </trkpt>
      <trkpt lat="36.568530" lon="-115.826910">
        <ele>1049.392</ele>
        <time>2018-12-28T15:51:42Z</time>
      </trkpt>
      <trkpt lat="36.568370" lon="-115.825280">
        <ele>1046.857</ele>
        <time>2018-12-28T15:52:02Z</time>
      </trkpt>
      <trkpt lat="36.568260" lon="-115.824200">
        <ele>1045.248</ele>
        <time>2018-12-28T15:52:22Z</time>
      </trkpt>
      <trkpt lat="36.568140" lon="-115.823110">
        <ele>1044.452</ele>
        <time>2018-12-28T15:52:42Z</time>
      </trkpt>
      <trkpt lat="36.567970" lon="-115.821490">
        <ele>1043.271</ele>
        <time>2018-12-28T15:53:02Z</time>
      </trkpt>
      <trkpt lat="36.567790" lon="-115.819730">
        <ele>1039.980</ele>
        <time>2018-12-28T15:53:22Z</time>
      </trkpt>
      <trkpt lat="36.567710" lon="-115.818920">
        <ele>1039.020</ele>
        <time>2018-12-28T15:53:42Z</time>
      </trkpt>
      <trkpt lat="36.567610" lon="-115.817970">
        <ele>1039.039</ele>
        <time>2018-12-28T15:54:02Z</time>
      </trkpt>
      <trkpt lat="36.567540" lon="-115.817160">
        <ele>1039.101</ele>
        <time>2018-12-28T15:54:22Z</time>
      </trkpt>
      <trkpt lat="36.567490" lon="-115.816340">
        <ele>1038.921</ele>
        <time>2018-12-28T15:54:42Z</time>
      </trkpt>
      <trkpt lat="36.567470" lon="-115.815930">
        <ele>1038.708</ele>
        <time>2018-12-28T15:55:02Z</time>
      </trkpt>
      <trkpt lat="36.567460" lon="-115.815660">
        <ele>1038.696</ele>
        <time>2018-12-28T15:55:22Z</time>
      </trkpt>
      <trkpt lat="36.567450" lon="-115.815520">
        <ele>1038.554</ele>
        <time>2018-12-28T15:55:42Z</time>
      </trkpt>
      <trkpt lat="36.567450" lon="-115.815390">
        <ele>1038.429</ele>
        <time>2018-12-28T15:56:02Z</time>
      </trkpt>
      <trkpt lat="36.567440" lon="-115.815110">
        <ele>1038.210</ele>
        <time>2018-12-28T15:56:22Z</time>
      </trkpt>
      <trkpt lat="36.567430" lon="-115.814840">
        <ele>1038.144</ele>
        <time>2018-12-28T15:56:42Z</time>
      </trkpt>
      <trkpt lat="36.567430" lon="-115.814560">
        <ele>1038.183</ele>
        <time>2018-12-28T15:57:02Z</time>
      </trkpt>
      <trkpt lat="36.567430" lon="-115.814150">
        <ele>1038.052</ele>
        <time>2018-12-28T15:57:22Z</time>
      </trkpt>
      <trkpt lat="36.567420" lon="-115.813880">
        <ele>1037.912</ele>
        <time>2018-12-28T15:57:42Z</time>
      </trkpt>
      <trkpt lat="36.567430" lon="-115.813550">
        <ele>1037.774</ele>
        <time>2018-12-28T15:58:02Z</time>
      </trkpt>
      <trkpt lat="36.567430" lon="-115.813330">
        <ele>1037.656</ele>
        <time>2018-12-28T15:58:22Z</time>
      </trkpt>
      <trkpt lat="36.567430" lon="-115.813200">
        <ele>1037.521</ele>
        <time>2018-12-28T15:58:42Z</time>
      </trkpt>
      <trkpt lat="36.567430" lon="-115.813060">
        <ele>1037.508</ele>
        <time>2018-12-28T15:59:02Z</time>
      </trkpt>
      <trkpt lat="36.567440" lon="-115.812920">
        <ele>1037.530</ele>
        <time>2018-12-28T15:59:22Z</time>
      </trkpt>
      <trkpt lat="36.567450" lon="-115.812650">
        <ele>1037.448</ele>
        <time>2018-12-28T15:59:42Z</time>
      </trkpt>
      <trkpt lat="36.567450" lon="-115.812510">
        <ele>1037.343</ele>
        <time>2018-12-28T16:00:02Z</time>
      </trkpt>
      <trkpt lat="36.567460" lon="-115.812240">
        <ele>1037.294</ele>
        <time>2018-12-28T16:00:22Z</time>
      </trkpt>
      <trkpt lat="36.567470" lon="-115.811970">
        <ele>1037.248</ele>
        <time>2018-12-28T16:00:42Z</time>
      </trkpt>
      <trkpt lat="36.567520" lon="-115.811150">
        <ele>1037.247</ele>
        <time>2018-12-28T16:01:02Z</time>
      </trkpt>
      <trkpt lat="36.567540" lon="-115.810750">
        <ele>1037.276</ele>
        <time>2018-12-28T16:01:22Z</time>
      </trkpt>
      <trkpt lat="36.567560" lon="-115.810470">
        <ele>1037.136</ele>
        <time>2018-12-28T16:01:42Z</time>
      </trkpt>
      <trkpt lat="36.567590" lon="-115.810200">
        <ele>1036.829</ele>
        <time>2018-12-28T16:02:02Z</time>
      </trkpt>
      <trkpt lat="36.567620" lon="-115.809930">
        <ele>1036.200</ele>
        <time>2018-12-28T16:02:22Z</time>
      </trkpt>
      <trkpt lat="36.567630" lon="-115.809800">
        <ele>1036.020</ele>
        <time>2018-12-28T16:02:42Z</time>
      </trkpt>
      <trkpt lat="36.567650" lon="-115.809660">
        <ele>1035.708</ele>
        <time>2018-12-28T16:03:02Z</time>
      </trkpt>
      <trkpt lat="36.567710" lon="-115.809120">
        <ele>1035.085</ele>
        <time>2018-12-28T16:03:22Z</time>
      </trkpt>
      <trkpt lat="36.567760" lon="-115.808710">
        <ele>1034.783</ele>
        <time>2018-12-28T16:03:42Z</time>
      </trkpt>
      <trkpt lat="36.567840" lon="-115.808040">
        <ele>1034.448</ele>
        <time>2018-12-28T16:04:02Z</time>
      </trkpt>
      <trkpt lat="36.567880" lon="-115.807730">
        <ele>1034.139</ele>
        <time>2018-12-28T16:04:22Z</time>
      </trkpt>
      <trkpt lat="36.567980" lon="-115.806950">
        <ele>1033.353</ele>
        <time>2018-12-28T16:04:42Z</time>
      </trkpt>
      <trkpt lat="36.567990" lon="-115.806820">
        <ele>1033.242</ele>
        <time>2018-12-28T16:05:02Z</time>
      </trkpt>
      <trkpt lat="36.568360" lon="-115.803850">
        <ele>1031.121</ele>
        <time>2018-12-28T16:05:22Z</time>
      </trkpt>
      <trkpt lat="36.568490" lon="-115.802770">
        <ele>1030.991</ele>
        <time>2018-12-28T16:05:42Z</time>
      </trkpt>
      <trkpt lat="36.568540" lon="-115.802370">
        <ele>1030.435</ele>
        <time>2018-12-28T16:06:02Z</time>
      </trkpt>
      <trkpt lat="36.568560" lon="-115.802240">
        <ele>1030.386</ele>
        <time>2018-12-28T16:06:22Z</time>
      </trkpt>
      <trkpt lat="36.568660" lon="-115.801430">
        <ele>1029.414</ele>
        <time>2018-12-28T16:06:42Z</time>
      </trkpt>
      <trkpt lat="36.568770" lon="-115.800620">
        <ele>1028.608</ele>
        <time>2018-12-28T16:07:02Z</time>
      </trkpt>
      <trkpt lat="36.568870" lon="-115.799800">
        <ele>1028.056</ele>
        <time>2018-12-28T16:07:22Z</time>
      </trkpt>
      <trkpt lat="36.568950" lon="-115.799130">
        <ele>1027.264</ele>
        <time>2018-12-28T16:07:42Z</time>
      </trkpt>
      <trkpt lat="36.569070" lon="-115.798190">
        <ele>1026.069</ele>
        <time>2018-12-28T16:08:02Z</time>
      </trkpt>
      <trkpt lat="36.569130" lon="-115.797780">
        <ele>1025.490</ele>
        <time>2018-12-28T16:08:22Z</time>
      </trkpt>
      <trkpt lat="36.569140" lon="-115.797650">
        <ele>1025.284</ele>
        <time>2018-12-28T16:08:42Z</time>
      </trkpt>
      <trkpt lat="36.569370" lon="-115.795760">
        <ele>1025.153</ele>
        <time>2018-12-28T16:09:02Z</time>
      </trkpt>
      <trkpt lat="36.569540" lon="-115.794410">
        <ele>1024.372</ele>
        <time>2018-12-28T16:09:22Z</time>
      </trkpt>
      <trkpt lat="36.569550" lon="-115.794310">
        <ele>1024.212</ele>
        <time>2018-12-28T16:09:42Z</time>
      </trkpt>
      <trkpt lat="36.569920" lon="-115.791450">
        <ele>1021.281</ele>
        <time>2018-12-28T16:10:02Z</time>
      </trkpt>
      <trkpt lat="36.570100" lon="-115.790030">
        <ele>1019.961</ele>
        <time>2018-12-28T16:10:22Z</time>
      </trkpt>
      <trkpt lat="36.570280" lon="-115.788510">
        <ele>1019.517</ele>
        <time>2018-12-28T16:10:42Z</time>
      </trkpt>
      <trkpt lat="36.570460" lon="-115.787050">
        <ele>1019.108</ele>
        <time>2018-12-28T16:11:02Z</time>
      </trkpt>
      <trkpt lat="36.570690" lon="-115.785240">
        <ele>1018.891</ele>
        <time>2018-12-28T16:11:22Z</time>
      </trkpt>
      <trkpt lat="36.570890" lon="-115.783610">
        <ele>1017.369</ele>
        <time>2018-12-28T16:11:42Z</time>
      </trkpt>
      <trkpt lat="36.571070" lon="-115.782210">
        <ele>1015.984</ele>
        <time>2018-12-28T16:12:02Z</time>
      </trkpt>
      <trkpt lat="36.571200" lon="-115.781160">
        <ele>1014.435</ele>
        <time>2018-12-28T16:12:22Z</time>
      </trkpt>
      <trkpt lat="36.571400" lon="-115.779560">
        <ele>1013.769</ele>
        <time>2018-12-28T16:12:42Z</time>
      </trkpt>
      <trkpt lat="36.571700" lon="-115.777130">
        <ele>1012.778</ele>
        <time>2018-12-28T16:13:02Z</time>
      </trkpt>
      <trkpt lat="36.571850" lon="-115.775930">
        <ele>1012.757</ele>
        <time>2018-12-28T16:13:22Z</time>
      </trkpt>
      <trkpt lat="36.572150" lon="-115.773540">
        <ele>1011.467</ele>
        <time>2018-12-28T16:13:42Z</time>
      </trkpt>
      <trkpt lat="36.572390" lon="-115.771610">
        <ele>1010.827</ele>
        <time>2018-12-28T16:14:02Z</time>
      </trkpt>
      <trkpt lat="36.572740" lon="-115.768860">
        <ele>1009.768</ele>
        <time>2018-12-28T16:14:22Z</time>
      </trkpt>
      <trkpt lat="36.572980" lon="-115.766940">
        <ele>1008.314</ele>
        <time>2018-12-28T16:14:42Z</time>
      </trkpt>
      <trkpt lat="36.573170" lon="-115.765370">
        <ele>1007.508</ele>
        <time>2018-12-28T16:15:02Z</time>
      </trkpt>
      <trkpt lat="36.573320" lon="-115.764190">
        <ele>1006.925</ele>
        <time>2018-12-28T16:15:22Z</time>
      </trkpt>
      <trkpt lat="36.573540" lon="-115.762410">
        <ele>1006.763</ele>
        <time>2018-12-28T16:15:42Z</time>
      </trkpt>
      <trkpt lat="36.573660" lon="-115.761450">
        <ele>1005.638</ele>
        <time>2018-12-28T16:16:02Z</time>
      </trkpt>
      <trkpt lat="36.573800" lon="-115.760320">
        <ele>1005.189</ele>
        <time>2018-12-28T16:16:22Z</time>
      </trkpt>
      <trkpt lat="36.573940" lon="-115.759190">
        <ele>1004.433</ele>
        <time>2018-12-28T16:16:42Z</time>
      </trkpt>
      <trkpt lat="36.574220" lon="-115.756610">
        <ele>1003.352</ele>
        <time>2018-12-28T16:17:02Z</time>
      </trkpt>
      <trkpt lat="36.574430" lon="-115.754690">
        <ele>1002.331</ele>
        <time>2018-12-28T16:17:22Z</time>
      </trkpt>
      <trkpt lat="36.574580" lon="-115.753250">
        <ele>1001.671</ele>
        <time>2018-12-28T16:17:42Z</time>
      </trkpt>
      <trkpt lat="36.575000" lon="-115.749400">
        <ele>1001.478</ele>
        <time>2018-12-28T16:18:02Z</time>
      </trkpt>
      <trkpt lat="36.575210" lon="-115.747380">
        <ele>1001.133</ele>
        <time>2018-12-28T16:18:22Z</time>
      </trkpt>
      <trkpt lat="36.575390" lon="-115.745770">
        <ele>1000.626</ele>
        <time>2018-12-28T16:18:42Z</time>
      </trkpt>
      <trkpt lat="36.575830" lon="-115.741780">
        <ele>997.608</ele>
        <time>2018-12-28T16:19:02Z</time>
      </trkpt>
      <trkpt lat="36.576030" lon="-115.739930">
        <ele>996.040</ele>
        <time>2018-12-28T16:19:22Z</time>
      </trkpt>
      <trkpt lat="36.576210" lon="-115.738330">
        <ele>994.658</ele>
        <time>2018-12-28T16:19:42Z</time>
      </trkpt>
      <trkpt lat="36.576440" lon="-115.736530">
        <ele>992.733</ele>
        <time>2018-12-28T16:20:02Z</time>
      </trkpt>
      <trkpt lat="36.576850" lon="-115.733340">
        <ele>989.934</ele>
        <time>2018-12-28T16:20:22Z</time>
      </trkpt>
      <trkpt lat="36.577020" lon="-115.731930">
        <ele>988.578</ele>
        <time>2018-12-28T16:20:42Z</time>
      </trkpt>
      <trkpt lat="36.577440" lon="-115.728560">
        <ele>986.467</ele>
        <time>2018-12-28T16:21:02Z</time>
      </trkpt>
      <trkpt lat="36.577540" lon="-115.727690">
        <ele>985.546</ele>
        <time>2018-12-28T16:21:22Z</time>
      </trkpt>
      <trkpt lat="36.577630" lon="-115.727070">
        <ele>984.756</ele>
        <time>2018-12-28T16:21:42Z</time>
      </trkpt>
      <trkpt lat="36.577930" lon="-115.724530">
        <ele>983.217</ele>
        <time>2018-12-28T16:22:02Z</time>
      </trkpt>
      <trkpt lat="36.578010" lon="-115.723910">
        <ele>982.987</ele>
        <time>2018-12-28T16:22:22Z</time>
      </trkpt>
      <trkpt lat="36.578050" lon="-115.723620">
        <ele>982.615</ele>
        <time>2018-12-28T16:22:42Z</time>
      </trkpt>
      <trkpt lat="36.578110" lon="-115.723070">
        <ele>982.008</ele>
        <time>2018-12-28T16:23:02Z</time>
      </trkpt>
      <trkpt lat="36.578290" lon="-115.721710">
        <ele>981.014</ele>
        <time>2018-12-28T16:23:22Z</time>
      </trkpt>
      <trkpt lat="36.578690" lon="-115.718460">
        <ele>979.212</ele>
        <time>2018-12-28T16:23:42Z</time>
      </trkpt>
      <trkpt lat="36.579140" lon="-115.714840">
        <ele>975.677</ele>
        <time>2018-12-28T16:24:02Z</time>
      </trkpt>
      <trkpt lat="36.579260" lon="-115.713910">
        <ele>974.758</ele>
        <time>2018-12-28T16:24:22Z</time>
      </trkpt>
      <trkpt lat="36.579360" lon="-115.713100">
        <ele>974.082</ele>
        <time>2018-12-28T16:24:42Z</time>
      </trkpt>
      <trkpt lat="36.579500" lon="-115.712030">
        <ele>973.191</ele>
        <time>2018-12-28T16:25:02Z</time>
      </trkpt>
      <trkpt lat="36.579580" lon="-115.711330">
        <ele>972.520</ele>
        <time>2018-12-28T16:25:22Z</time>
      </trkpt>
      <trkpt lat="36.579690" lon="-115.710220">
        <ele>971.630</ele>
        <time>2018-12-28T16:25:42Z</time>
      </trkpt>
      <trkpt lat="36.579730" lon="-115.709700">
        <ele>971.339</ele>
        <time>2018-12-28T16:26:02Z</time>
      </trkpt>
      <trkpt lat="36.579760" lon="-115.709300">
        <ele>971.001</ele>
        <time>2018-12-28T16:26:22Z</time>
      </trkpt>
      <trkpt lat="36.579790" lon="-115.708880">
        <ele>970.721</ele>
        <time>2018-12-28T16:26:42Z</time>
      </trkpt>
      <trkpt lat="36.579820" lon="-115.708370">
        <ele>970.508</ele>
        <time>2018-12-28T16:27:02Z</time>
      </trkpt>
      <trkpt lat="36.579840" lon="-115.708050">
        <ele>970.486</ele>
        <time>2018-12-28T16:27:22Z</time>
      </trkpt>
      <trkpt lat="36.579850" lon="-115.707600">
        <ele>970.234</ele>
        <time>2018-12-28T16:27:42Z</time>
      </trkpt>
      <trkpt lat="36.579870" lon="-115.707110">
        <ele>969.829</ele>
        <time>2018-12-28T16:28:02Z</time>
      </trkpt>
      <trkpt lat="36.579880" lon="-115.706330">
        <ele>968.880</ele>
        <time>2018-12-28T16:28:22Z</time>
      </trkpt>
      <trkpt lat="36.579880" lon="-115.705870">
        <ele>968.494</ele>
        <time>2018-12-28T16:28:42Z</time>
      </trkpt>
      <trkpt lat="36.579880" lon="-115.705470">
        <ele>968.123</ele>
        <time>2018-12-28T16:29:02Z</time>
      </trkpt>
      <trkpt lat="36.579870" lon="-115.704930">
        <ele>967.672</ele>
        <time>2018-12-28T16:29:22Z</time>
      </trkpt>
      <trkpt lat="36.579860" lon="-115.704420">
        <ele>967.272</ele>
        <time>2018-12-28T16:29:42Z</time>
      </trkpt>
      <trkpt lat="36.579850" lon="-115.704130">
        <ele>966.915</ele>
        <time>2018-12-28T16:30:02Z</time>
      </trkpt>
      <trkpt lat="36.579830" lon="-115.703590">
        <ele>966.465</ele>
        <time>2018-12-28T16:30:22Z</time>
      </trkpt>
      <trkpt lat="36.579800" lon="-115.703120">
        <ele>966.111</ele>
        <time>2018-12-28T16:30:42Z</time>
      </trkpt>
      <trkpt lat="36.579710" lon="-115.701540">
        <ele>965.008</ele>
        <time>2018-12-28T16:31:02Z</time>
      </trkpt>
      <trkpt lat="36.579570" lon="-115.699040">
        <ele>962.994</ele>
        <time>2018-12-28T16:31:22Z</time>
      </trkpt>
      <trkpt lat="36.579100" lon="-115.690830">
        <ele>956.752</ele>
        <time>2018-12-28T16:31:42Z</time>
      </trkpt>
      <trkpt lat="36.578970" lon="-115.688490">
        <ele>956.147</ele>
        <time>2018-12-28T16:32:02Z</time>
      </trkpt>
      <trkpt lat="36.578890" lon="-115.687040">
        <ele>956.018</ele>
        <time>2018-12-28T16:32:22Z</time>
      </trkpt>
      <trkpt lat="36.578810" lon="-115.685670">
        <ele>956.192</ele>
        <time>2018-12-28T16:32:42Z</time>
      </trkpt>
      <trkpt lat="36.578730" lon="-115.684270">
        <ele>956.361</ele>
        <time>2018-12-28T16:33:02Z</time>
      </trkpt>
      <trkpt lat="36.578650" lon="-115.682700">
        <ele>956.450</ele>
        <time>2018-12-28T16:33:22Z</time>
      </trkpt>
      <trkpt lat="36.578590" lon="-115.681740">
        <ele>956.590</ele>
        <time>2018-12-28T16:33:42Z</time>
      </trkpt>
      <trkpt lat="36.578500" lon="-115.680080">
        <ele>957.481</ele>
        <time>2018-12-28T16:34:02Z</time>
      </trkpt>
      <trkpt lat="36.578390" lon="-115.678140">
        <ele>956.961</ele>
        <time>2018-12-28T16:34:22Z</time>
      </trkpt>
      <trkpt lat="36.578330" lon="-115.677220">
        <ele>956.317</ele>
        <time>2018-12-28T16:34:42Z</time>
      </trkpt>
      <trkpt lat="36.578270" lon="-115.676120">
        <ele>955.608</ele>
        <time>2018-12-28T16:35:02Z</time>
      </trkpt>
      <trkpt lat="36.578230" lon="-115.675470">
        <ele>955.331</ele>
        <time>2018-12-28T16:35:22Z</time>
      </trkpt>
      <trkpt lat="36.578030" lon="-115.672010">
        <ele>953.639</ele>
        <time>2018-12-28T16:35:42Z</time>
      </trkpt>
      <trkpt lat="36.577970" lon="-115.670860">
        <ele>952.974</ele>
        <time>2018-12-28T16:36:02Z</time>
      </trkpt>
      <trkpt lat="36.577910" lon="-115.669820">
        <ele>952.575</ele>
        <time>2018-12-28T16:36:22Z</time>
      </trkpt>
      <trkpt lat="36.577850" lon="-115.668920">
        <ele>952.429</ele>
        <time>2018-12-28T16:36:42Z</time>
      </trkpt>
      <trkpt lat="36.577810" lon="-115.668070">
        <ele>952.448</ele>
        <time>2018-12-28T16:37:02Z</time>
      </trkpt>
      <trkpt lat="36.577760" lon="-115.667310">
        <ele>952.377</ele>
        <time>2018-12-28T16:37:22Z</time>
      </trkpt>
      <trkpt lat="36.577620" lon="-115.664790">
        <ele>952.237</ele>
        <time>2018-12-28T16:37:42Z</time>
      </trkpt>
      <trkpt lat="36.577430" lon="-115.661390">
        <ele>952.436</ele>
        <time>2018-12-28T16:38:02Z</time>
      </trkpt>
      <trkpt lat="36.577220" lon="-115.657640">
        <ele>952.617</ele>
        <time>2018-12-28T16:38:22Z</time>
      </trkpt>
      <trkpt lat="36.577130" lon="-115.656120">
        <ele>953.418</ele>
        <time>2018-12-28T16:38:42Z</time>
      </trkpt>
      <trkpt lat="36.577010" lon="-115.653900">
        <ele>954.808</ele>
        <time>2018-12-28T16:39:02Z</time>
      </trkpt>
      <trkpt lat="36.577000" lon="-115.653710">
        <ele>954.916</ele>
        <time>2018-12-28T16:39:22Z</time>
      </trkpt>
      <trkpt lat="36.576930" lon="-115.652720">
        <ele>955.724</ele>
        <time>2018-12-28T16:39:42Z</time>
      </trkpt>
      <trkpt lat="36.576700" lon="-115.648510">
        <ele>957.239</ele>
        <time>2018-12-28T16:40:02Z</time>
      </trkpt>
      <trkpt lat="36.576680" lon="-115.648230">
        <ele>957.220</ele>
        <time>2018-12-28T16:40:22Z</time>
      </trkpt>
      <trkpt lat="36.576640" lon="-115.647810">
        <ele>957.584</ele>
        <time>2018-12-28T16:40:42Z</time>
      </trkpt>
      <trkpt lat="36.576620" lon="-115.647530">
        <ele>957.843</ele>
        <time>2018-12-28T16:41:02Z</time>
      </trkpt>
      <trkpt lat="36.576570" lon="-115.647120">
        <ele>957.972</ele>
        <time>2018-12-28T16:41:22Z</time>
      </trkpt>
      <trkpt lat="36.576550" lon="-115.646830">
        <ele>958.032</ele>
        <time>2018-12-28T16:41:42Z</time>
      </trkpt>
      <trkpt lat="36.576520" lon="-115.646560">
        <ele>958.152</ele>
        <time>2018-12-28T16:42:02Z</time>
      </trkpt>
      <trkpt lat="36.576480" lon="-115.646280">
        <ele>958.653</ele>
        <time>2018-12-28T16:42:22Z</time>
      </trkpt>
      <trkpt lat="36.576460" lon="-115.646140">
        <ele>958.708</ele>
        <time>2018-12-28T16:42:42Z</time>
      </trkpt>
      <trkpt lat="36.576430" lon="-115.645860">
        <ele>958.908</ele>
        <time>2018-12-28T16:43:02Z</time>
      </trkpt>
      <trkpt lat="36.576370" lon="-115.645450">
        <ele>959.078</ele>
        <time>2018-12-28T16:43:22Z</time>
      </trkpt>
      <trkpt lat="36.576350" lon="-115.645310">
        <ele>959.056</ele>
        <time>2018-12-28T16:43:42Z</time>
      </trkpt>
      <trkpt lat="36.576330" lon="-115.645170">
        <ele>959.141</ele>
        <time>2018-12-28T16:44:02Z</time>
      </trkpt>
      <trkpt lat="36.576310" lon="-115.645030">
        <ele>959.292</ele>
        <time>2018-12-28T16:44:22Z</time>
      </trkpt>
      <trkpt lat="36.576220" lon="-115.644430">
        <ele>959.726</ele>
        <time>2018-12-28T16:44:42Z</time>
      </trkpt>
      <trkpt lat="36.576110" lon="-115.643810">
        <ele>960.555</ele>
        <time>2018-12-28T16:45:02Z</time>
      </trkpt>
      <trkpt lat="36.576060" lon="-115.643530">
        <ele>960.784</ele>
        <time>2018-12-28T16:45:22Z</time>
      </trkpt>
      <trkpt lat="36.576030" lon="-115.643400">
        <ele>960.834</ele>
        <time>2018-12-28T16:45:42Z</time>
      </trkpt>
      <trkpt lat="36.575950" lon="-115.642990">
        <ele>960.922</ele>
        <time>2018-12-28T16:46:02Z</time>
      </trkpt>
      <trkpt lat="36.575860" lon="-115.642580">
        <ele>961.162</ele>
        <time>2018-12-28T16:46:22Z</time>
      </trkpt>
      <trkpt lat="36.575770" lon="-115.642180">
        <ele>961.308</ele>
        <time>2018-12-28T16:46:42Z</time>
      </trkpt>
      <trkpt lat="36.575710" lon="-115.641910">
        <ele>961.408</ele>
        <time>2018-12-28T16:47:02Z</time>
      </trkpt>
      <trkpt lat="36.575650" lon="-115.641630">
        <ele>961.725</ele>
        <time>2018-12-28T16:47:22Z</time>
      </trkpt>
      <trkpt lat="36.575550" lon="-115.641230">
        <ele>962.113</ele>
        <time>2018-12-28T16:47:42Z</time>
      </trkpt>
      <trkpt lat="36.575450" lon="-115.640830">
        <ele>962.898</ele>
        <time>2018-12-28T16:48:02Z</time>
      </trkpt>
      <trkpt lat="36.575300" lon="-115.640300">
        <ele>963.829</ele>
        <time>2018-12-28T16:48:22Z</time>
      </trkpt>
      <trkpt lat="36.575190" lon="-115.639900">
        <ele>964.013</ele>
        <time>2018-12-28T16:48:42Z</time>
      </trkpt>
      <trkpt lat="36.575070" lon="-115.639500">
        <ele>964.142</ele>
        <time>2018-12-28T16:49:02Z</time>
      </trkpt>
      <trkpt lat="36.574910" lon="-115.638980">
        <ele>964.031</ele>
        <time>2018-12-28T16:49:22Z</time>
      </trkpt>
      <trkpt lat="36.574660" lon="-115.638200">
        <ele>964.071</ele>
        <time>2018-12-28T16:49:42Z</time>
      </trkpt>
      <trkpt lat="36.574570" lon="-115.637940">
        <ele>964.149</ele>
        <time>2018-12-28T16:50:02Z</time>
      </trkpt>
      <trkpt lat="36.574390" lon="-115.637420">
        <ele>964.102</ele>
        <time>2018-12-28T16:50:22Z</time>
      </trkpt>
      <trkpt lat="36.574160" lon="-115.636780">
        <ele>964.322</ele>
        <time>2018-12-28T16:50:42Z</time>
      </trkpt>
      <trkpt lat="36.574060" lon="-115.636530">
        <ele>964.508</ele>
        <time>2018-12-28T16:51:02Z</time>
      </trkpt>
      <trkpt lat="36.573910" lon="-115.636150">
        <ele>965.247</ele>
        <time>2018-12-28T16:51:22Z</time>
      </trkpt>
      <trkpt lat="36.573700" lon="-115.635650">
        <ele>966.025</ele>
        <time>2018-12-28T16:51:42Z</time>
      </trkpt>
      <trkpt lat="36.573210" lon="-115.634540">
        <ele>967.380</ele>
        <time>2018-12-28T16:52:02Z</time>
      </trkpt>
      <trkpt lat="36.572930" lon="-115.633940">
        <ele>967.921</ele>
        <time>2018-12-28T16:52:22Z</time>
      </trkpt>
      <trkpt lat="36.572690" lon="-115.633450">
        <ele>968.485</ele>
        <time>2018-12-28T16:52:42Z</time>
      </trkpt>
      <trkpt lat="36.572330" lon="-115.632740">
        <ele>969.074</ele>
        <time>2018-12-28T16:53:02Z</time>
      </trkpt>
      <trkpt lat="36.571890" lon="-115.631920">
        <ele>970.143</ele>
        <time>2018-12-28T16:53:22Z</time>
      </trkpt>
      <trkpt lat="36.571490" lon="-115.631230">
        <ele>971.273</ele>
        <time>2018-12-28T16:53:42Z</time>
      </trkpt>
      <trkpt lat="36.570830" lon="-115.630090">
        <ele>972.449</ele>
        <time>2018-12-28T16:54:02Z</time>
      </trkpt>
      <trkpt lat="36.570040" lon="-115.628720">
        <ele>973.502</ele>
        <time>2018-12-28T16:54:22Z</time>
      </trkpt>
      <trkpt lat="36.569710" lon="-115.628150">
        <ele>973.822</ele>
        <time>2018-12-28T16:54:42Z</time>
      </trkpt>
      <trkpt lat="36.569180" lon="-115.627230">
        <ele>974.508</ele>
        <time>2018-12-28T16:55:02Z</time>
      </trkpt>
      <trkpt lat="36.568260" lon="-115.625630">
        <ele>976.337</ele>
        <time>2018-12-28T16:55:22Z</time>
      </trkpt>
      <trkpt lat="36.567470" lon="-115.624270">
        <ele>977.895</ele>
        <time>2018-12-28T16:55:42Z</time>
      </trkpt>
      <trkpt lat="36.566750" lon="-115.623000">
        <ele>978.120</ele>
        <time>2018-12-28T16:56:02Z</time>
      </trkpt>
      <trkpt lat="36.566450" lon="-115.622480">
        <ele>978.651</ele>
        <time>2018-12-28T16:56:22Z</time>
      </trkpt>
      <trkpt lat="36.566280" lon="-115.622200">
        <ele>978.945</ele>
        <time>2018-12-28T16:56:42Z</time>
      </trkpt>
      <trkpt lat="36.565300" lon="-115.620490">
        <ele>980.094</ele>
        <time>2018-12-28T16:57:02Z</time>
      </trkpt>
      <trkpt lat="36.565040" lon="-115.620030">
        <ele>980.333</ele>
        <time>2018-12-28T16:57:22Z</time>
      </trkpt>
      <trkpt lat="36.564450" lon="-115.618990">
        <ele>980.643</ele>
        <time>2018-12-28T16:57:42Z</time>
      </trkpt>
      <trkpt lat="36.564180" lon="-115.618550">
        <ele>981.183</ele>
        <time>2018-12-28T16:58:02Z</time>
      </trkpt>
      <trkpt lat="36.563120" lon="-115.616720">
        <ele>983.325</ele>
        <time>2018-12-28T16:58:22Z</time>
      </trkpt>
      <trkpt lat="36.562470" lon="-115.615580">
        <ele>984.017</ele>
        <time>2018-12-28T16:58:42Z</time>
      </trkpt>
      <trkpt lat="36.562010" lon="-115.614770">
        <ele>984.408</ele>
        <time>2018-12-28T16:59:02Z</time>
      </trkpt>
      <trkpt lat="36.560890" lon="-115.612830">
        <ele>984.481</ele>
        <time>2018-12-28T16:59:22Z</time>
      </trkpt>
      <trkpt lat="36.560500" lon="-115.612150">
        <ele>985.129</ele>
        <time>2018-12-28T16:59:42Z</time>
      </trkpt>
      <trkpt lat="36.560290" lon="-115.611800">
        <ele>985.544</ele>
        <time>2018-12-28T17:00:02Z</time>
      </trkpt>
      <trkpt lat="36.560030" lon="-115.611340">
        <ele>985.955</ele>
        <time>2018-12-28T17:00:22Z</time>
      </trkpt>
      <trkpt lat="36.559900" lon="-115.611120">
        <ele>986.189</ele>
        <time>2018-12-28T17:00:42Z</time>
      </trkpt>
      <trkpt lat="36.559710" lon="-115.610800">
        <ele>986.488</ele>
        <time>2018-12-28T17:01:02Z</time>
      </trkpt>
      <trkpt lat="36.559510" lon="-115.610440">
        <ele>986.787</ele>
        <time>2018-12-28T17:01:22Z</time>
      </trkpt>
      <trkpt lat="36.559320" lon="-115.610110">
        <ele>986.997</ele>
        <time>2018-12-28T17:01:42Z</time>
      </trkpt>
      <trkpt lat="36.559000" lon="-115.609560">
        <ele>987.558</ele>
        <time>2018-12-28T17:02:02Z</time>
      </trkpt>
      <trkpt lat="36.558670" lon="-115.608990">
        <ele>987.852</ele>
        <time>2018-12-28T17:02:22Z</time>
      </trkpt>
      <trkpt lat="36.558560" lon="-115.608790">
        <ele>987.817</ele>
        <time>2018-12-28T17:02:42Z</time>
      </trkpt>
      <trkpt lat="36.558240" lon="-115.608240">
        <ele>987.808</ele>
        <time>2018-12-28T17:03:02Z</time>
      </trkpt>
      <trkpt lat="36.557860" lon="-115.607570">
        <ele>987.758</ele>
        <time>2018-12-28T17:03:22Z</time>
      </trkpt>
      <trkpt lat="36.557440" lon="-115.606860">
        <ele>987.746</ele>
        <time>2018-12-28T17:03:42Z</time>
      </trkpt>
      <trkpt lat="36.557230" lon="-115.606480">
        <ele>987.651</ele>
        <time>2018-12-28T17:04:02Z</time>
      </trkpt>
      <trkpt lat="36.556590" lon="-115.605380">
        <ele>987.712</ele>
        <time>2018-12-28T17:04:22Z</time>
      </trkpt>
      <trkpt lat="36.556080" lon="-115.604500">
        <ele>987.636</ele>
        <time>2018-12-28T17:04:42Z</time>
      </trkpt>
      <trkpt lat="36.555570" lon="-115.603610">
        <ele>987.775</ele>
        <time>2018-12-28T17:05:02Z</time>
      </trkpt>
      <trkpt lat="36.555130" lon="-115.602840">
        <ele>987.824</ele>
        <time>2018-12-28T17:05:22Z</time>
      </trkpt>
      <trkpt lat="36.554810" lon="-115.602290">
        <ele>987.854</ele>
        <time>2018-12-28T17:05:42Z</time>
      </trkpt>
      <trkpt lat="36.554430" lon="-115.601630">
        <ele>987.844</ele>
        <time>2018-12-28T17:06:02Z</time>
      </trkpt>
      <trkpt lat="36.553930" lon="-115.600750">
        <ele>987.805</ele>
        <time>2018-12-28T17:06:22Z</time>
      </trkpt>
      <trkpt lat="36.553350" lon="-115.599760">
        <ele>987.615</ele>
        <time>2018-12-28T17:06:42Z</time>
      </trkpt>
      <trkpt lat="36.552460" lon="-115.598220">
        <ele>987.908</ele>
        <time>2018-12-28T17:07:02Z</time>
      </trkpt>
      <trkpt lat="36.550490" lon="-115.594810">
        <ele>986.387</ele>
        <time>2018-12-28T17:07:22Z</time>
      </trkpt>
      <trkpt lat="36.549280" lon="-115.592720">
        <ele>985.495</ele>
        <time>2018-12-28T17:07:42Z</time>
      </trkpt>
      <trkpt lat="36.548270" lon="-115.590960">
        <ele>984.910</ele>
        <time>2018-12-28T17:08:02Z</time>
      </trkpt>
      <trkpt lat="36.546110" lon="-115.587210">
        <ele>984.221</ele>
        <time>2018-12-28T17:08:22Z</time>
      </trkpt>
      <trkpt lat="36.545410" lon="-115.586000">
        <ele>984.125</ele>
        <time>2018-12-28T17:08:42Z</time>
      </trkpt>
      <trkpt lat="36.544900" lon="-115.585120">
        <ele>984.184</ele>
        <time>2018-12-28T17:09:02Z</time>
      </trkpt>
      <trkpt lat="36.544080" lon="-115.583690">
        <ele>983.413</ele>
        <time>2018-12-28T17:09:22Z</time>
      </trkpt>
      <trkpt lat="36.543500" lon="-115.582700">
        <ele>983.523</ele>
        <time>2018-12-28T17:09:42Z</time>
      </trkpt>
      <trkpt lat="36.542940" lon="-115.581710">
        <ele>981.583</ele>
        <time>2018-12-28T17:10:02Z</time>
      </trkpt>
      <trkpt lat="36.541350" lon="-115.578970">
        <ele>981.025</ele>
        <time>2018-12-28T17:10:22Z</time>
      </trkpt>
      <trkpt lat="36.540950" lon="-115.578280">
        <ele>980.917</ele>
        <time>2018-12-28T17:10:42Z</time>
      </trkpt>
      <trkpt lat="36.540390" lon="-115.577310">
        <ele>980.708</ele>
        <time>2018-12-28T17:11:02Z</time>
      </trkpt>
      <trkpt lat="36.540210" lon="-115.576980">
        <ele>980.631</ele>
        <time>2018-12-28T17:11:22Z</time>
      </trkpt>
      <trkpt lat="36.539910" lon="-115.576480">
        <ele>980.659</ele>
        <time>2018-12-28T17:11:42Z</time>
      </trkpt>
      <trkpt lat="36.539730" lon="-115.576170">
        <ele>980.524</ele>
        <time>2018-12-28T17:12:02Z</time>
      </trkpt>
      <trkpt lat="36.538900" lon="-115.574720">
        <ele>980.115</ele>
        <time>2018-12-28T17:12:22Z</time>
      </trkpt>
      <trkpt lat="36.538720" lon="-115.574410">
        <ele>979.999</ele>
        <time>2018-12-28T17:12:42Z</time>
      </trkpt>
      <trkpt lat="36.538260" lon="-115.573620">
        <ele>979.188</ele>
        <time>2018-12-28T17:13:02Z</time>
      </trkpt>
      <trkpt lat="36.537390" lon="-115.572120">
        <ele>978.777</ele>
        <time>2018-12-28T17:13:22Z</time>
      </trkpt>
      <trkpt lat="36.535460" lon="-115.568780">
        <ele>978.137</ele>
        <time>2018-12-28T17:13:42Z</time>
      </trkpt>
      <trkpt lat="36.534710" lon="-115.567470">
        <ele>978.285</ele>
        <time>2018-12-28T17:14:02Z</time>
      </trkpt>
      <trkpt lat="36.534100" lon="-115.566430">
        <ele>978.389</ele>
        <time>2018-12-28T17:14:22Z</time>
      </trkpt>
      <trkpt lat="36.533810" lon="-115.565920">
        <ele>978.217</ele>
        <time>2018-12-28T17:14:42Z</time>
      </trkpt>
      <trkpt lat="36.533490" lon="-115.565370">
        <ele>977.708</ele>
        <time>2018-12-28T17:15:02Z</time>
      </trkpt>
      <trkpt lat="36.533300" lon="-115.565030">
        <ele>977.521</ele>
        <time>2018-12-28T17:15:22Z</time>
      </trkpt>
      <trkpt lat="36.532730" lon="-115.564050">
        <ele>976.159</ele>
        <time>2018-12-28T17:15:42Z</time>
      </trkpt>
      <trkpt lat="36.531960" lon="-115.562710">
        <ele>975.224</ele>
        <time>2018-12-28T17:16:02Z</time>
      </trkpt>
      <trkpt lat="36.531650" lon="-115.562180">
        <ele>975.275</ele>
        <time>2018-12-28T17:16:22Z</time>
      </trkpt>
      <trkpt lat="36.530880" lon="-115.560860">
        <ele>975.119</ele>
        <time>2018-12-28T17:16:42Z</time>
      </trkpt>
      <trkpt lat="36.530790" lon="-115.560690">
        <ele>975.168</ele>
        <time>2018-12-28T17:17:02Z</time>
      </trkpt>
      <trkpt lat="36.530160" lon="-115.559610">
        <ele>974.827</ele>
        <time>2018-12-28T17:17:22Z</time>
      </trkpt>
      <trkpt lat="36.529250" lon="-115.558070">
        <ele>974.347</ele>
        <time>2018-12-28T17:17:42Z</time>
      </trkpt>
      <trkpt lat="36.528940" lon="-115.557540">
        <ele>974.118</ele>
        <time>2018-12-28T17:18:02Z</time>
      </trkpt>
      <trkpt lat="36.528560" lon="-115.556890">
        <ele>973.798</ele>
        <time>2018-12-28T17:18:22Z</time>
      </trkpt>
      <trkpt lat="36.527800" lon="-115.555560">
        <ele>973.417</ele>
        <time>2018-12-28T17:18:42Z</time>
      </trkpt>
      <trkpt lat="36.527290" lon="-115.554690">
        <ele>973.308</ele>
        <time>2018-12-28T17:19:02Z</time>
      </trkpt>
      <trkpt lat="36.526850" lon="-115.553920">
        <ele>972.974</ele>
        <time>2018-12-28T17:19:22Z</time>
      </trkpt>
      <trkpt lat="36.526590" lon="-115.553470">
        <ele>972.742</ele>
        <time>2018-12-28T17:19:42Z</time>
      </trkpt>
      <trkpt lat="36.526210" lon="-115.552810">
        <ele>972.447</ele>
        <time>2018-12-28T17:20:02Z</time>
      </trkpt>
      <trkpt lat="36.525780" lon="-115.552060">
        <ele>971.618</ele>
        <time>2018-12-28T17:20:22Z</time>
      </trkpt>
      <trkpt lat="36.524550" lon="-115.549940">
        <ele>968.812</ele>
        <time>2018-12-28T17:20:42Z</time>
      </trkpt>
      <trkpt lat="36.523860" lon="-115.548750">
        <ele>968.691</ele>
        <time>2018-12-28T17:21:02Z</time>
      </trkpt>
      <trkpt lat="36.523630" lon="-115.548350">
        <ele>968.590</ele>
        <time>2018-12-28T17:21:22Z</time>
      </trkpt>
      <trkpt lat="36.520850" lon="-115.543540">
        <ele>964.050</ele>
        <time>2018-12-28T17:21:42Z</time>
      </trkpt>
      <trkpt lat="36.515590" lon="-115.534430">
        <ele>960.239</ele>
        <time>2018-12-28T17:22:02Z</time>
      </trkpt>
      <trkpt lat="36.513490" lon="-115.530770">
        <ele>960.801</ele>
        <time>2018-12-28T17:22:22Z</time>
      </trkpt>
      <trkpt lat="36.512290" lon="-115.528690">
        <ele>961.821</ele>
        <time>2018-12-28T17:22:42Z</time>
      </trkpt>
      <trkpt lat="36.511850" lon="-115.527930">
        <ele>961.808</ele>
        <time>2018-12-28T17:23:02Z</time>
      </trkpt>
      <trkpt lat="36.511530" lon="-115.527370">
        <ele>961.336</ele>
        <time>2018-12-28T17:23:22Z</time>
      </trkpt>
      <trkpt lat="36.511280" lon="-115.526930">
        <ele>961.124</ele>
        <time>2018-12-28T17:23:42Z</time>
      </trkpt>
      <trkpt lat="36.510960" lon="-115.526410">
        <ele>963.819</ele>
        <time>2018-12-28T17:24:02Z</time>
      </trkpt>
      <trkpt lat="36.508650" lon="-115.522400">
        <ele>966.440</ele>
        <time>2018-12-28T17:24:22Z</time>
      </trkpt>
      <trkpt lat="36.507060" lon="-115.519680">
        <ele>970.084</ele>
        <time>2018-12-28T17:24:42Z</time>
      </trkpt>
      <trkpt lat="36.505670" lon="-115.517260">
        <ele>972.473</ele>
        <time>2018-12-28T17:25:02Z</time>
      </trkpt>
      <trkpt lat="36.504200" lon="-115.514740">
        <ele>975.542</ele>
        <time>2018-12-28T17:25:22Z</time>
      </trkpt>
      <trkpt lat="36.502660" lon="-115.512000">
        <ele>978.962</ele>
        <time>2018-12-28T17:25:42Z</time>
      </trkpt>
      <trkpt lat="36.501000" lon="-115.509140">
        <ele>981.924</ele>
        <time>2018-12-28T17:26:02Z</time>
      </trkpt>
      <trkpt lat="36.498460" lon="-115.504740">
        <ele>988.404</ele>
        <time>2018-12-28T17:26:22Z</time>
      </trkpt>
      <trkpt lat="36.497950" lon="-115.503860">
        <ele>989.314</ele>
        <time>2018-12-28T17:26:42Z</time>
      </trkpt>
      <trkpt lat="36.495470" lon="-115.499580">
        <ele>994.308</ele>
        <time>2018-12-28T17:27:02Z</time>
      </trkpt>
      <trkpt lat="36.494960" lon="-115.498700">
        <ele>995.595</ele>
        <time>2018-12-28T17:27:22Z</time>
      </trkpt>
      <trkpt lat="36.494620" lon="-115.498080">
        <ele>996.293</ele>
        <time>2018-12-28T17:27:42Z</time>
      </trkpt>
      <trkpt lat="36.494200" lon="-115.497380">
        <ele>996.998</ele>
        <time>2018-12-28T17:28:02Z</time>
      </trkpt>
      <trkpt lat="36.493760" lon="-115.496610">
        <ele>997.779</ele>
        <time>2018-12-28T17:28:22Z</time>
      </trkpt>
      <trkpt lat="36.493060" lon="-115.495400">
        <ele>998.773</ele>
        <time>2018-12-28T17:28:42Z</time>
      </trkpt>
      <trkpt lat="36.491910" lon="-115.493410">
        <ele>999.792</ele>
        <time>2018-12-28T17:29:02Z</time>
      </trkpt>
      <trkpt lat="36.490700" lon="-115.491340">
        <ele>1002.881</ele>
        <time>2018-12-28T17:29:22Z</time>
      </trkpt>
      <trkpt lat="36.487460" lon="-115.485740">
        <ele>1006.881</ele>
        <time>2018-12-28T17:29:42Z</time>
      </trkpt>
      <trkpt lat="36.485550" lon="-115.482430">
        <ele>1008.258</ele>
        <time>2018-12-28T17:30:02Z</time>
      </trkpt>
      <trkpt lat="36.484230" lon="-115.480150">
        <ele>1008.352</ele>
        <time>2018-12-28T17:30:22Z</time>
      </trkpt>
      <trkpt lat="36.481100" lon="-115.474740">
        <ele>1012.017</ele>
        <time>2018-12-28T17:30:42Z</time>
      </trkpt>
      <trkpt lat="36.480700" lon="-115.474030">
        <ele>1012.008</ele>
        <time>2018-12-28T17:31:02Z</time>
      </trkpt>
      <trkpt lat="36.479100" lon="-115.471260">
        <ele>1012.258</ele>
        <time>2018-12-28T17:31:22Z</time>
      </trkpt>
      <trkpt lat="36.478670" lon="-115.470530">
        <ele>1012.216</ele>
        <time>2018-12-28T17:31:42Z</time>
      </trkpt>
      <trkpt lat="36.477310" lon="-115.468180">
        <ele>1010.091</ele>
        <time>2018-12-28T17:32:02Z</time>
      </trkpt>
      <trkpt lat="36.475180" lon="-115.464510">
        <ele>1006.322</ele>
        <time>2018-12-28T17:32:22Z</time>
      </trkpt>
      <trkpt lat="36.474770" lon="-115.463800">
        <ele>1005.296</ele>
        <time>2018-12-28T17:32:42Z</time>
      </trkpt>
      <trkpt lat="36.473720" lon="-115.461980">
        <ele>1003.535</ele>
        <time>2018-12-28T17:33:02Z</time>
      </trkpt>
      <trkpt lat="36.473080" lon="-115.460870">
        <ele>1002.544</ele>
        <time>2018-12-28T17:33:22Z</time>
      </trkpt>
      <trkpt lat="36.472500" lon="-115.459880">
        <ele>1000.544</ele>
        <time>2018-12-28T17:33:42Z</time>
      </trkpt>
      <trkpt lat="36.470760" lon="-115.456870">
        <ele>994.411</ele>
        <time>2018-12-28T17:34:02Z</time>
      </trkpt>
      <trkpt lat="36.469970" lon="-115.455510">
        <ele>991.621</ele>
        <time>2018-12-28T17:34:22Z</time>
      </trkpt>
      <trkpt lat="36.469240" lon="-115.454250">
        <ele>988.703</ele>
        <time>2018-12-28T17:34:42Z</time>
      </trkpt>
      <trkpt lat="36.468860" lon="-115.453580">
        <ele>987.108</ele>
        <time>2018-12-28T17:35:02Z</time>
      </trkpt>
      <trkpt lat="36.468150" lon="-115.452420">
        <ele>984.774</ele>
        <time>2018-12-28T17:35:22Z</time>
      </trkpt>
      <trkpt lat="36.467920" lon="-115.452070">
        <ele>983.942</ele>
        <time>2018-12-28T17:35:42Z</time>
      </trkpt>
      <trkpt lat="36.467660" lon="-115.451660">
        <ele>982.987</ele>
        <time>2018-12-28T17:36:02Z</time>
      </trkpt>
      <trkpt lat="36.467440" lon="-115.451340">
        <ele>982.268</ele>
        <time>2018-12-28T17:36:22Z</time>
      </trkpt>
      <trkpt lat="36.467230" lon="-115.451030">
        <ele>981.632</ele>
        <time>2018-12-28T17:36:42Z</time>
      </trkpt>
      <trkpt lat="36.467080" lon="-115.450810">
        <ele>981.131</ele>
        <time>2018-12-28T17:37:02Z</time>
      </trkpt>
      <trkpt lat="36.467020" lon="-115.450730">
        <ele>981.080</ele>
        <time>2018-12-28T17:37:22Z</time>
      </trkpt>
      <trkpt lat="36.466440" lon="-115.449960">
        <ele>979.630</ele>
        <time>2018-12-28T17:37:42Z</time>
      </trkpt>
      <trkpt lat="36.465650" lon="-115.448950">
        <ele>977.347</ele>
        <time>2018-12-28T17:38:02Z</time>
      </trkpt>
      <trkpt lat="36.465400" lon="-115.448660">
        <ele>976.329</ele>
        <time>2018-12-28T17:38:22Z</time>
      </trkpt>
      <trkpt lat="36.465190" lon="-115.448420">
        <ele>975.721</ele>
        <time>2018-12-28T17:38:42Z</time>
      </trkpt>
      <trkpt lat="36.465060" lon="-115.448270">
        <ele>975.408</ele>
        <time>2018-12-28T17:39:02Z</time>
      </trkpt>
      <trkpt lat="36.464830" lon="-115.448020">
        <ele>974.927</ele>
        <time>2018-12-28T17:39:22Z</time>
      </trkpt>
      <trkpt lat="36.464330" lon="-115.447480">
        <ele>974.675</ele>
        <time>2018-12-28T17:39:42Z</time>
      </trkpt>
      <trkpt lat="36.464160" lon="-115.447300">
        <ele>974.620</ele>
        <time>2018-12-28T17:40:02Z</time>
      </trkpt>
      <trkpt lat="36.464000" lon="-115.447130">
        <ele>974.491</ele>
        <time>2018-12-28T17:40:22Z</time>
      </trkpt>
      <trkpt lat="36.463490" lon="-115.446630">
        <ele>973.875</ele>
        <time>2018-12-28T17:40:42Z</time>
      </trkpt>
      <trkpt lat="36.463090" lon="-115.446240">
        <ele>973.324</ele>
        <time>2018-12-28T17:41:02Z</time>
      </trkpt>
      <trkpt lat="36.463070" lon="-115.446230">
        <ele>973.363</ele>
        <time>2018-12-28T17:41:22Z</time>
      </trkpt>
      <trkpt lat="36.462250" lon="-115.445490">
        <ele>972.833</ele>
        <time>2018-12-28T17:41:42Z</time>
      </trkpt>
      <trkpt lat="36.461800" lon="-115.445100">
        <ele>972.637</ele>
        <time>2018-12-28T17:42:02Z</time>
      </trkpt>
      <trkpt lat="36.461140" lon="-115.444570">
        <ele>972.149</ele>
        <time>2018-12-28T17:42:22Z</time>
      </trkpt>
      <trkpt lat="36.460960" lon="-115.444440">
        <ele>972.013</ele>
        <time>2018-12-28T17:42:42Z</time>
      </trkpt>
      <trkpt lat="36.460410" lon="-115.444020">
        <ele>971.508</ele>
        <time>2018-12-28T17:43:02Z</time>
      </trkpt>
      <trkpt lat="36.459580" lon="-115.443440">
        <ele>971.116</ele>
        <time>2018-12-28T17:43:22Z</time>
      </trkpt>
      <trkpt lat="36.459250" lon="-115.443230">
        <ele>971.194</ele>
        <time>2018-12-28T17:43:42Z</time>
      </trkpt>
      <trkpt lat="36.458360" lon="-115.442680">
        <ele>970.759</ele>
        <time>2018-12-28T17:44:02Z</time>
      </trkpt>
      <trkpt lat="36.457970" lon="-115.442450">
        <ele>970.420</ele>
        <time>2018-12-28T17:44:22Z</time>
      </trkpt>
      <trkpt lat="36.457370" lon="-115.442100">
        <ele>970.124</ele>
        <time>2018-12-28T17:44:42Z</time>
      </trkpt>
      <trkpt lat="36.454430" lon="-115.440410">
        <ele>967.323</ele>
        <time>2018-12-28T17:45:02Z</time>
      </trkpt>
      <trkpt lat="36.451150" lon="-115.438470">
        <ele>965.552</ele>
        <time>2018-12-28T17:45:22Z</time>
      </trkpt>
      <trkpt lat="36.448930" lon="-115.437210">
        <ele>961.422</ele>
        <time>2018-12-28T17:45:42Z</time>
      </trkpt>
      <trkpt lat="36.446140" lon="-115.435600">
        <ele>957.693</ele>
        <time>2018-12-28T17:46:02Z</time>
      </trkpt>
      <trkpt lat="36.444840" lon="-115.434850">
        <ele>956.565</ele>
        <time>2018-12-28T17:46:22Z</time>
      </trkpt>
      <trkpt lat="36.444140" lon="-115.434450">
        <ele>955.921</ele>
        <time>2018-12-28T17:46:42Z</time>
      </trkpt>
      <trkpt lat="36.442850" lon="-115.433700">
        <ele>954.608</ele>
        <time>2018-12-28T17:47:02Z</time>
      </trkpt>
      <trkpt lat="36.441500" lon="-115.432930">
        <ele>954.192</ele>
        <time>2018-12-28T17:47:22Z</time>
      </trkpt>
      <trkpt lat="36.440860" lon="-115.432550">
        <ele>953.530</ele>
        <time>2018-12-28T17:47:42Z</time>
      </trkpt>
      <trkpt lat="36.437770" lon="-115.430780">
        <ele>948.765</ele>
        <time>2018-12-28T17:48:02Z</time>
      </trkpt>
      <trkpt lat="36.437580" lon="-115.430670">
        <ele>948.226</ele>
        <time>2018-12-28T17:48:22Z</time>
      </trkpt>
      <trkpt lat="36.435130" lon="-115.429240">
        <ele>943.380</ele>
        <time>2018-12-28T17:48:42Z</time>
      </trkpt>
      <trkpt lat="36.434020" lon="-115.428600">
        <ele>943.229</ele>
        <time>2018-12-28T17:49:02Z</time>
      </trkpt>
      <trkpt lat="36.432700" lon="-115.427830">
        <ele>942.358</ele>
        <time>2018-12-28T17:49:22Z</time>
      </trkpt>
      <trkpt lat="36.430410" lon="-115.426500">
        <ele>939.818</ele>
        <time>2018-12-28T17:49:42Z</time>
      </trkpt>
      <trkpt lat="36.428610" lon="-115.425460">
        <ele>934.846</ele>
        <time>2018-12-28T17:50:02Z</time>
      </trkpt>
      <trkpt lat="36.426320" lon="-115.424140">
        <ele>930.388</ele>
        <time>2018-12-28T17:50:22Z</time>
      </trkpt>
      <trkpt lat="36.425930" lon="-115.423910">
        <ele>929.916</ele>
        <time>2018-12-28T17:50:42Z</time>
      </trkpt>
      <trkpt lat="36.425520" lon="-115.423690">
        <ele>929.608</ele>
        <time>2018-12-28T17:51:02Z</time>
      </trkpt>
      <trkpt lat="36.423700" lon="-115.422620">
        <ele>927.027</ele>
        <time>2018-12-28T17:51:22Z</time>
      </trkpt>
      <trkpt lat="36.422140" lon="-115.421720">
        <ele>924.375</ele>
        <time>2018-12-28T17:51:42Z</time>
      </trkpt>
      <trkpt lat="36.421860" lon="-115.421560">
        <ele>924.240</ele>
        <time>2018-12-28T17:52:02Z</time>
      </trkpt>
      <trkpt lat="36.421270" lon="-115.421180">
        <ele>923.071</ele>
        <time>2018-12-28T17:52:22Z</time>
      </trkpt>
      <trkpt lat="36.420790" lon="-115.420850">
        <ele>921.795</ele>
        <time>2018-12-28T17:52:42Z</time>
      </trkpt>
      <trkpt lat="36.420360" lon="-115.420550">
        <ele>920.164</ele>
        <time>2018-12-28T17:53:02Z</time>
      </trkpt>
      <trkpt lat="36.419430" lon="-115.419830">
        <ele>918.193</ele>
        <time>2018-12-28T17:53:22Z</time>
      </trkpt>
      <trkpt lat="36.418620" lon="-115.419170">
        <ele>916.153</ele>
        <time>2018-12-28T17:53:42Z</time>
      </trkpt>
      <trkpt lat="36.418010" lon="-115.418620">
        <ele>913.466</ele>
        <time>2018-12-28T17:54:02Z</time>
      </trkpt>
      <trkpt lat="36.417470" lon="-115.418120">
        <ele>911.629</ele>
        <time>2018-12-28T17:54:22Z</time>
      </trkpt>
      <trkpt lat="36.416940" lon="-115.417600">
        <ele>909.721</ele>
        <time>2018-12-28T17:54:42Z</time>
      </trkpt>
      <trkpt lat="36.416060" lon="-115.416670">
        <ele>906.408</ele>
        <time>2018-12-28T17:55:02Z</time>
      </trkpt>
      <trkpt lat="36.415230" lon="-115.415720">
        <ele>903.649</ele>
        <time>2018-12-28T17:55:22Z</time>
      </trkpt>
      <trkpt lat="36.413890" lon="-115.414110">
        <ele>898.797</ele>
        <time>2018-12-28T17:55:42Z</time>
      </trkpt>
      <trkpt lat="36.413290" lon="-115.413380">
        <ele>896.362</ele>
        <time>2018-12-28T17:56:02Z</time>
      </trkpt>
      <trkpt lat="36.412220" lon="-115.412090">
        <ele>892.583</ele>
        <time>2018-12-28T17:56:22Z</time>
      </trkpt>
      <trkpt lat="36.411580" lon="-115.411330">
        <ele>891.097</ele>
        <time>2018-12-28T17:56:42Z</time>
      </trkpt>
      <trkpt lat="36.410320" lon="-115.409790">
        <ele>885.996</ele>
        <time>2018-12-28T17:57:02Z</time>
      </trkpt>
      <trkpt lat="36.409260" lon="-115.408500">
        <ele>880.165</ele>
        <time>2018-12-28T17:57:22Z</time>
      </trkpt>
      <trkpt lat="36.408180" lon="-115.407190">
        <ele>878.055</ele>
        <time>2018-12-28T17:57:42Z</time>
      </trkpt>
      <trkpt lat="36.406890" lon="-115.405650">
        <ele>877.819</ele>
        <time>2018-12-28T17:58:02Z</time>
      </trkpt>
      <trkpt lat="36.403930" lon="-115.402060">
        <ele>877.509</ele>
        <time>2018-12-28T17:58:22Z</time>
      </trkpt>
      <trkpt lat="36.399680" lon="-115.396920">
        <ele>878.719</ele>
        <time>2018-12-28T17:58:42Z</time>
      </trkpt>
      <trkpt lat="36.395680" lon="-115.392100">
        <ele>884.008</ele>
        <time>2018-12-28T17:59:02Z</time>
      </trkpt>
      <trkpt lat="36.393520" lon="-115.389490">
        <ele>888.364</ele>
        <time>2018-12-28T17:59:22Z</time>
      </trkpt>
      <trkpt lat="36.376820" lon="-115.369290">
        <ele>898.752</ele>
        <time>2018-12-28T17:59:42Z</time>
      </trkpt>
      <trkpt lat="36.376110" lon="-115.368440">
        <ele>898.947</ele>
        <time>2018-12-28T18:00:02Z</time>
      </trkpt>
      <trkpt lat="36.375000" lon="-115.367100">
        <ele>898.958</ele>
        <time>2018-12-28T18:00:22Z</time>
      </trkpt>
      <trkpt lat="36.372490" lon="-115.364060">
        <ele>900.072</ele>
        <time>2018-12-28T18:00:42Z</time>
      </trkpt>
      <trkpt lat="36.366590" lon="-115.356960">
        <ele>902.961</ele>
        <time>2018-12-28T18:01:02Z</time>
      </trkpt>
      <trkpt lat="36.366390" lon="-115.356730">
        <ele>902.920</ele>
        <time>2018-12-28T18:01:22Z</time>
      </trkpt>
      <trkpt lat="36.366310" lon="-115.356620">
        <ele>902.940</ele>
        <time>2018-12-28T18:01:42Z</time>
      </trkpt>
      <trkpt lat="36.365660" lon="-115.355820">
        <ele>900.784</ele>
        <time>2018-12-28T18:02:02Z</time>
      </trkpt>
      <trkpt lat="36.365260" lon="-115.355340">
        <ele>900.407</ele>
        <time>2018-12-28T18:02:22Z</time>
      </trkpt>
      <trkpt lat="36.364400" lon="-115.354310">
        <ele>900.517</ele>
        <time>2018-12-28T18:02:42Z</time>
      </trkpt>
      <trkpt lat="36.363640" lon="-115.353390">
        <ele>900.208</ele>
        <time>2018-12-28T18:03:02Z</time>
      </trkpt>
      <trkpt lat="36.362430" lon="-115.351920">
        <ele>899.341</ele>
        <time>2018-12-28T18:03:22Z</time>
      </trkpt>
      <trkpt lat="36.361290" lon="-115.350560">
        <ele>899.649</ele>
        <time>2018-12-28T18:03:42Z</time>
      </trkpt>
      <trkpt lat="36.360420" lon="-115.349510">
        <ele>899.284</ele>
        <time>2018-12-28T18:04:02Z</time>
      </trkpt>
      <trkpt lat="36.359820" lon="-115.348780">
        <ele>898.985</ele>
        <time>2018-12-28T18:04:22Z</time>
      </trkpt>
      <trkpt lat="36.358440" lon="-115.347120">
        <ele>897.249</ele>
        <time>2018-12-28T18:04:42Z</time>
      </trkpt>
      <trkpt lat="36.357930" lon="-115.346510">
        <ele>897.118</ele>
        <time>2018-12-28T18:05:02Z</time>
      </trkpt>
      <trkpt lat="36.357810" lon="-115.346370">
        <ele>897.067</ele>
        <time>2018-12-28T18:05:22Z</time>
      </trkpt>
      <trkpt lat="36.357300" lon="-115.345760">
        <ele>896.497</ele>
        <time>2018-12-28T18:05:42Z</time>
      </trkpt>
      <trkpt lat="36.356800" lon="-115.345170">
        <ele>895.718</ele>
        <time>2018-12-28T18:06:02Z</time>
      </trkpt>
      <trkpt lat="36.355660" lon="-115.343780">
        <ele>893.598</ele>
        <time>2018-12-28T18:06:22Z</time>
      </trkpt>
      <trkpt lat="36.354380" lon="-115.342220">
        <ele>892.117</ele>
        <time>2018-12-28T18:06:42Z</time>
      </trkpt>
      <trkpt lat="36.353720" lon="-115.341430">
        <ele>891.508</ele>
        <time>2018-12-28T18:07:02Z</time>
      </trkpt>
      <trkpt lat="36.352730" lon="-115.340240">
        <ele>891.044</ele>
        <time>2018-12-28T18:07:22Z</time>
      </trkpt>
      <trkpt lat="36.352350" lon="-115.339760">
        <ele>890.442</ele>
        <time>2018-12-28T18:07:42Z</time>
      </trkpt>
      <trkpt lat="36.351750" lon="-115.339040">
        <ele>889.447</ele>
        <time>2018-12-28T18:08:02Z</time>
      </trkpt>
      <trkpt lat="36.351400" lon="-115.338650">
        <ele>889.498</ele>
        <time>2018-12-28T18:08:22Z</time>
      </trkpt>
      <trkpt lat="36.348670" lon="-115.335340">
        <ele>887.382</ele>
        <time>2018-12-28T18:08:42Z</time>
      </trkpt>
      <trkpt lat="36.346720" lon="-115.332970">
        <ele>885.071</ele>
        <time>2018-12-28T18:09:02Z</time>
      </trkpt>
      <trkpt lat="36.345130" lon="-115.331080">
        <ele>883.810</ele>
        <time>2018-12-28T18:09:22Z</time>
      </trkpt>
      <trkpt lat="36.344170" lon="-115.329910">
        <ele>883.190</ele>
        <time>2018-12-28T18:09:42Z</time>
      </trkpt>
      <trkpt lat="36.342100" lon="-115.327440">
        <ele>879.035</ele>
        <time>2018-12-28T18:10:02Z</time>
      </trkpt>
      <trkpt lat="36.341940" lon="-115.327230">
        <ele>879.086</ele>
        <time>2018-12-28T18:10:22Z</time>
      </trkpt>
      <trkpt lat="36.340900" lon="-115.325970">
        <ele>877.614</ele>
        <time>2018-12-28T18:10:42Z</time>
      </trkpt>
      <trkpt lat="36.339490" lon="-115.324260">
        <ele>875.608</ele>
        <time>2018-12-28T18:11:02Z</time>
      </trkpt>
      <trkpt lat="36.339290" lon="-115.324040">
        <ele>875.246</ele>
        <time>2018-12-28T18:11:22Z</time>
      </trkpt>
      <trkpt lat="36.339030" lon="-115.323720">
        <ele>874.894</ele>
        <time>2018-12-28T18:11:42Z</time>
      </trkpt>
      <trkpt lat="36.338890" lon="-115.323550">
        <ele>874.599</ele>
        <time>2018-12-28T18:12:02Z</time>
      </trkpt>
      <trkpt lat="36.338620" lon="-115.323210">
        <ele>874.080</ele>
        <time>2018-12-28T18:12:22Z</time>
      </trkpt>
      <trkpt lat="36.338480" lon="-115.323060">
        <ele>873.694</ele>
        <time>2018-12-28T18:12:42Z</time>
      </trkpt>
      <trkpt lat="36.338180" lon="-115.322700">
        <ele>872.893</ele>
        <time>2018-12-28T18:13:02Z</time>
      </trkpt>
      <trkpt lat="36.337830" lon="-115.322300">
        <ele>872.832</ele>
        <time>2018-12-28T18:13:22Z</time>
      </trkpt>
      <trkpt lat="36.337520" lon="-115.321970">
        <ele>872.582</ele>
        <time>2018-12-28T18:13:42Z</time>
      </trkpt>
      <trkpt lat="36.337240" lon="-115.321670">
        <ele>872.515</ele>
        <time>2018-12-28T18:14:02Z</time>
      </trkpt>
      <trkpt lat="36.336910" lon="-115.321330">
        <ele>872.065</ele>
        <time>2018-12-28T18:14:22Z</time>
      </trkpt>
      <trkpt lat="36.336540" lon="-115.320960">
        <ele>871.311</ele>
        <time>2018-12-28T18:14:42Z</time>
      </trkpt>
      <trkpt lat="36.336160" lon="-115.320600">
        <ele>871.008</ele>
        <time>2018-12-28T18:15:02Z</time>
      </trkpt>
      <trkpt lat="36.335980" lon="-115.320430">
        <ele>870.744</ele>
        <time>2018-12-28T18:15:22Z</time>
      </trkpt>
      <trkpt lat="36.335550" lon="-115.320030">
        <ele>870.162</ele>
        <time>2018-12-28T18:15:42Z</time>
      </trkpt>
      <trkpt lat="36.334620" lon="-115.319190">
        <ele>868.267</ele>
        <time>2018-12-28T18:16:02Z</time>
      </trkpt>
      <trkpt lat="36.333850" lon="-115.318480">
        <ele>866.728</ele>
        <time>2018-12-28T18:16:22Z</time>
      </trkpt>
      <trkpt lat="36.332610" lon="-115.317350">
        <ele>865.372</ele>
        <time>2018-12-28T18:16:42Z</time>
      </trkpt>
      <trkpt lat="36.332380" lon="-115.317140">
        <ele>865.041</ele>
        <time>2018-12-28T18:17:02Z</time>
      </trkpt>
      <trkpt lat="36.331920" lon="-115.316710">
        <ele>864.390</ele>
        <time>2018-12-28T18:17:22Z</time>
      </trkpt>
      <trkpt lat="36.331500" lon="-115.316330">
        <ele>863.750</ele>
        <time>2018-12-28T18:17:42Z</time>
      </trkpt>
      <trkpt lat="36.330780" lon="-115.315670">
        <ele>862.762</ele>
        <time>2018-12-28T18:18:02Z</time>
      </trkpt>
      <trkpt lat="36.330450" lon="-115.315360">
        <ele>862.283</ele>
        <time>2018-12-28T18:18:22Z</time>
      </trkpt>
      <trkpt lat="36.330120" lon="-115.315070">
        <ele>861.611</ele>
        <time>2018-12-28T18:18:42Z</time>
      </trkpt>
      <trkpt lat="36.329910" lon="-115.314880">
        <ele>861.008</ele>
        <time>2018-12-28T18:19:02Z</time>
      </trkpt>
      <trkpt lat="36.329860" lon="-115.314840">
        <ele>860.829</ele>
        <time>2018-12-28T18:19:22Z</time>
      </trkpt>
      <trkpt lat="36.329690" lon="-115.314680">
        <ele>860.727</ele>
        <time>2018-12-28T18:19:42Z</time>
      </trkpt>
      <trkpt lat="36.328980" lon="-115.314040">
        <ele>860.592</ele>
        <time>2018-12-28T18:20:02Z</time>
      </trkpt>
      <trkpt lat="36.328340" lon="-115.313450">
        <ele>859.293</ele>
        <time>2018-12-28T18:20:22Z</time>
      </trkpt>
      <trkpt lat="36.327930" lon="-115.313080">
        <ele>858.727</ele>
        <time>2018-12-28T18:20:42Z</time>
      </trkpt>
      <trkpt lat="36.327910" lon="-115.313060">
        <ele>858.676</ele>
        <time>2018-12-28T18:21:02Z</time>
      </trkpt>
      <trkpt lat="36.327490" lon="-115.312660">
        <ele>857.835</ele>
        <time>2018-12-28T18:21:22Z</time>
      </trkpt>
      <trkpt lat="36.326870" lon="-115.312120">
        <ele>856.775</ele>
        <time>2018-12-28T18:21:42Z</time>
      </trkpt>
      <trkpt lat="36.326330" lon="-115.311630">
        <ele>855.242</ele>
        <time>2018-12-28T18:22:02Z</time>
      </trkpt>
      <trkpt lat="36.325380" lon="-115.310740">
        <ele>852.922</ele>
        <time>2018-12-28T18:22:22Z</time>
      </trkpt>
      <trkpt lat="36.324050" lon="-115.309530">
        <ele>849.014</ele>
        <time>2018-12-28T18:22:42Z</time>
      </trkpt>
      <trkpt lat="36.323730" lon="-115.309240">
        <ele>848.608</ele>
        <time>2018-12-28T18:23:02Z</time>
      </trkpt>
      <trkpt lat="36.322600" lon="-115.308220">
        <ele>846.587</ele>
        <time>2018-12-28T18:23:22Z</time>
      </trkpt>
      <trkpt lat="36.321930" lon="-115.307590">
        <ele>844.355</ele>
        <time>2018-12-28T18:23:42Z</time>
      </trkpt>
      <trkpt lat="36.319250" lon="-115.305160">
        <ele>838.420</ele>
        <time>2018-12-28T18:24:02Z</time>
      </trkpt>
      <trkpt lat="36.319090" lon="-115.305010">
        <ele>838.031</ele>
        <time>2018-12-28T18:24:22Z</time>
      </trkpt>
      <trkpt lat="36.314910" lon="-115.301200">
        <ele>828.625</ele>
        <time>2018-12-28T18:24:42Z</time>
      </trkpt>
      <trkpt lat="36.314600" lon="-115.300910">
        <ele>827.754</ele>
        <time>2018-12-28T18:25:02Z</time>
      </trkpt>
      <trkpt lat="36.314580" lon="-115.300890">
        <ele>827.763</ele>
        <time>2018-12-28T18:25:22Z</time>
      </trkpt>
      <trkpt lat="36.314440" lon="-115.300760">
        <ele>827.313</ele>
        <time>2018-12-28T18:25:42Z</time>
      </trkpt>
      <trkpt lat="36.314400" lon="-115.300730">
        <ele>827.214</ele>
        <time>2018-12-28T18:26:02Z</time>
      </trkpt>
      <trkpt lat="36.314350" lon="-115.300680">
        <ele>827.054</ele>
        <time>2018-12-28T18:26:22Z</time>
      </trkpt>
      <trkpt lat="36.314300" lon="-115.300630">
        <ele>826.809</ele>
        <time>2018-12-28T18:26:42Z</time>
      </trkpt>
      <trkpt lat="36.314290" lon="-115.300630">
        <ele>826.808</ele>
        <time>2018-12-28T18:27:02Z</time>
      </trkpt>
      <trkpt lat="36.314220" lon="-115.300560">
        <ele>826.544</ele>
        <time>2018-12-28T18:27:22Z</time>
      </trkpt>
      <trkpt lat="36.314210" lon="-115.300550">
        <ele>826.542</ele>
        <time>2018-12-28T18:27:42Z</time>
      </trkpt>
      <trkpt lat="36.312460" lon="-115.298950">
        <ele>823.257</ele>
        <time>2018-12-28T18:28:02Z</time>
      </trkpt>
      <trkpt lat="36.309060" lon="-115.295850">
        <ele>814.078</ele>
        <time>2018-12-28T18:28:22Z</time>
      </trkpt>
      <trkpt lat="36.308410" lon="-115.295260">
        <ele>811.962</ele>
        <time>2018-12-28T18:28:42Z</time>
      </trkpt>
      <trkpt lat="36.306420" lon="-115.293450">
        <ele>809.651</ele>
        <time>2018-12-28T18:29:02Z</time>
      </trkpt>
      <trkpt lat="36.306210" lon="-115.293260">
        <ele>809.260</ele>
        <time>2018-12-28T18:29:22Z</time>
      </trkpt>
      <trkpt lat="36.305170" lon="-115.292310">
        <ele>806.010</ele>
        <time>2018-12-28T18:29:42Z</time>
      </trkpt>
      <trkpt lat="36.303590" lon="-115.290870">
        <ele>802.369</ele>
        <time>2018-12-28T18:30:02Z</time>
      </trkpt>
      <trkpt lat="36.303190" lon="-115.290510">
        <ele>801.004</ele>
        <time>2018-12-28T18:30:22Z</time>
      </trkpt>
      <trkpt lat="36.301700" lon="-115.289140">
        <ele>799.324</ele>
        <time>2018-12-28T18:30:42Z</time>
      </trkpt>
      <trkpt lat="36.298860" lon="-115.286560">
        <ele>795.408</ele>
        <time>2018-12-28T18:31:02Z</time>
      </trkpt>
      <trkpt lat="36.298340" lon="-115.286090">
        <ele>793.319</ele>
        <time>2018-12-28T18:31:22Z</time>
      </trkpt>
      <trkpt lat="36.298220" lon="-115.285980">
        <ele>793.377</ele>
        <time>2018-12-28T18:31:42Z</time>
      </trkpt>
      <trkpt lat="36.297860" lon="-115.285670">
        <ele>792.242</ele>
        <time>2018-12-28T18:32:02Z</time>
      </trkpt>
      <trkpt lat="36.297740" lon="-115.285560">
        <ele>791.893</ele>
        <time>2018-12-28T18:32:22Z</time>
      </trkpt>
      <trkpt lat="36.297630" lon="-115.285470">
        <ele>791.547</ele>
        <time>2018-12-28T18:32:42Z</time>
      </trkpt>
      <trkpt lat="36.297550" lon="-115.285390">
        <ele>791.286</ele>
        <time>2018-12-28T18:33:02Z</time>
      </trkpt>
      <trkpt lat="36.297400" lon="-115.285260">
        <ele>790.725</ele>
        <time>2018-12-28T18:33:22Z</time>
      </trkpt>
      <trkpt lat="36.295140" lon="-115.283180">
        <ele>783.455</ele>
        <time>2018-12-28T18:33:42Z</time>
      </trkpt>
      <trkpt lat="36.294700" lon="-115.282780">
        <ele>782.271</ele>
        <time>2018-12-28T18:34:02Z</time>
      </trkpt>
      <trkpt lat="36.294150" lon="-115.282280">
        <ele>781.041</ele>
        <time>2018-12-28T18:34:22Z</time>
      </trkpt>
      <trkpt lat="36.293600" lon="-115.281770">
        <ele>779.515</ele>
        <time>2018-12-28T18:34:42Z</time>
      </trkpt>
      <trkpt lat="36.291800" lon="-115.280140">
        <ele>774.708</ele>
        <time>2018-12-28T18:35:02Z</time>
      </trkpt>
      <trkpt lat="36.291790" lon="-115.280130">
        <ele>774.780</ele>
        <time>2018-12-28T18:35:22Z</time>
      </trkpt>
      <trkpt lat="36.291780" lon="-115.280110">
        <ele>774.648</ele>
        <time>2018-12-28T18:35:42Z</time>
      </trkpt>
      <trkpt lat="36.291650" lon="-115.280000">
        <ele>774.053</ele>
        <time>2018-12-28T18:36:02Z</time>
      </trkpt>
      <trkpt lat="36.291630" lon="-115.279980">
        <ele>773.994</ele>
        <time>2018-12-28T18:36:22Z</time>
      </trkpt>
      <trkpt lat="36.291500" lon="-115.279850">
        <ele>773.458</ele>
        <time>2018-12-28T18:36:42Z</time>
      </trkpt>
      <trkpt lat="36.290570" lon="-115.279020">
        <ele>770.837</ele>
        <time>2018-12-28T18:37:02Z</time>
      </trkpt>
      <trkpt lat="36.289180" lon="-115.277750">
        <ele>768.046</ele>
        <time>2018-12-28T18:37:22Z</time>
      </trkpt>
      <trkpt lat="36.287570" lon="-115.276250">
        <ele>763.066</ele>
        <time>2018-12-28T18:37:42Z</time>
      </trkpt>
      <trkpt lat="36.285280" lon="-115.274170">
        <ele>757.737</ele>
        <time>2018-12-28T18:38:02Z</time>
      </trkpt>
      <trkpt lat="36.284770" lon="-115.273690">
        <ele>758.249</ele>
        <time>2018-12-28T18:38:22Z</time>
      </trkpt>
      <trkpt lat="36.284250" lon="-115.273220">
        <ele>755.513</ele>
        <time>2018-12-28T18:38:42Z</time>
      </trkpt>
      <trkpt lat="36.281590" lon="-115.270800">
        <ele>748.908</ele>
        <time>2018-12-28T18:39:02Z</time>
      </trkpt>
      <trkpt lat="36.281360" lon="-115.270580">
        <ele>748.336</ele>
        <time>2018-12-28T18:39:22Z</time>
      </trkpt>
      <trkpt lat="36.280180" lon="-115.269520">
        <ele>744.764</ele>
        <time>2018-12-28T18:39:42Z</time>
      </trkpt>
      <trkpt lat="36.278790" lon="-115.268250">
        <ele>740.699</ele>
        <time>2018-12-28T18:40:02Z</time>
      </trkpt>
      <trkpt lat="36.277930" lon="-115.267470">
        <ele>738.560</ele>
        <time>2018-12-28T18:40:22Z</time>
      </trkpt>
      <trkpt lat="36.277060" lon="-115.266670">
        <ele>737.754</ele>
        <time>2018-12-28T18:40:42Z</time>
      </trkpt>
      <trkpt lat="36.275560" lon="-115.265290">
        <ele>734.053</ele>
        <time>2018-12-28T18:41:02Z</time>
      </trkpt>
      <trkpt lat="36.275290" lon="-115.265060">
        <ele>733.222</ele>
        <time>2018-12-28T18:41:22Z</time>
      </trkpt>
      <trkpt lat="36.275130" lon="-115.264920">
        <ele>732.882</ele>
        <time>2018-12-28T18:41:42Z</time>
      </trkpt>
      <trkpt lat="36.274860" lon="-115.264670">
        <ele>732.661</ele>
        <time>2018-12-28T18:42:02Z</time>
      </trkpt>
      <trkpt lat="36.271930" lon="-115.262000">
        <ele>728.221</ele>
        <time>2018-12-28T18:42:22Z</time>
      </trkpt>
      <trkpt lat="36.271760" lon="-115.261850">
        <ele>728.013</ele>
        <time>2018-12-28T18:42:42Z</time>
      </trkpt>
      <trkpt lat="36.271040" lon="-115.261190">
        <ele>726.508</ele>
        <time>2018-12-28T18:43:02Z</time>
      </trkpt>
      <trkpt lat="36.269940" lon="-115.260200">
        <ele>726.139</ele>
        <time>2018-12-28T18:43:22Z</time>
      </trkpt>
      <trkpt lat="36.268200" lon="-115.258580">
        <ele>724.417</ele>
        <time>2018-12-28T18:43:42Z</time>
      </trkpt>
      <trkpt lat="36.267750" lon="-115.258190">
        <ele>723.682</ele>
        <time>2018-12-28T18:44:02Z</time>
      </trkpt>
      <trkpt lat="36.267700" lon="-115.258150">
        <ele>723.553</ele>
        <time>2018-12-28T18:44:22Z</time>
      </trkpt>
      <trkpt lat="36.267200" lon="-115.257660">
        <ele>722.397</ele>
        <time>2018-12-28T18:44:42Z</time>
      </trkpt>
      <trkpt lat="36.266650" lon="-115.257170">
        <ele>721.576</ele>
        <time>2018-12-28T18:45:02Z</time>
      </trkpt>
      <trkpt lat="36.265090" lon="-115.255730">
        <ele>720.685</ele>
        <time>2018-12-28T18:45:22Z</time>
      </trkpt>
      <trkpt lat="36.264640" lon="-115.255300">
        <ele>720.245</ele>
        <time>2018-12-28T18:45:42Z</time>
      </trkpt>
      <trkpt lat="36.264410" lon="-115.255100">
        <ele>720.499</ele>
        <time>2018-12-28T18:46:02Z</time>
      </trkpt>
      <trkpt lat="36.264100" lon="-115.254820">
        <ele>720.107</ele>
        <time>2018-12-28T18:46:22Z</time>
      </trkpt>
      <trkpt lat="36.263560" lon="-115.254320">
        <ele>719.927</ele>
        <time>2018-12-28T18:46:42Z</time>
      </trkpt>
      <trkpt lat="36.263340" lon="-115.254120">
        <ele>719.608</ele>
        <time>2018-12-28T18:47:02Z</time>
      </trkpt>
      <trkpt lat="36.262720" lon="-115.253560">
        <ele>718.942</ele>
        <time>2018-12-28T18:47:22Z</time>
      </trkpt>
      <trkpt lat="36.260930" lon="-115.251900">
        <ele>716.910</ele>
        <time>2018-12-28T18:47:42Z</time>
      </trkpt>
      <trkpt lat="36.260400" lon="-115.251440">
        <ele>715.965</ele>
        <time>2018-12-28T18:48:02Z</time>
      </trkpt>
      <trkpt lat="36.259810" lon="-115.250900">
        <ele>715.656</ele>
        <time>2018-12-28T18:48:22Z</time>
      </trkpt>
      <trkpt lat="36.259010" lon="-115.250160">
        <ele>714.860</ele>
        <time>2018-12-28T18:48:42Z</time>
      </trkpt>
      <trkpt lat="36.258190" lon="-115.249410">
        <ele>714.189</ele>
        <time>2018-12-28T18:49:02Z</time>
      </trkpt>
      <trkpt lat="36.257780" lon="-115.249040">
        <ele>714.038</ele>
        <time>2018-12-28T18:49:22Z</time>
      </trkpt>
      <trkpt lat="36.257380" lon="-115.248680">
        <ele>713.938</ele>
        <time>2018-12-28T18:49:42Z</time>
      </trkpt>
      <trkpt lat="36.256530" lon="-115.248020">
        <ele>713.168</ele>
        <time>2018-12-28T18:50:02Z</time>
      </trkpt>
      <trkpt lat="36.256160" lon="-115.247780">
        <ele>712.842</ele>
        <time>2018-12-28T18:50:22Z</time>
      </trkpt>
      <trkpt lat="36.256040" lon="-115.247720">
        <ele>712.726</ele>
        <time>2018-12-28T18:50:42Z</time>
      </trkpt>
      <trkpt lat="36.255810" lon="-115.247590">
        <ele>712.608</ele>
        <time>2018-12-28T18:51:02Z</time>
      </trkpt>
      <trkpt lat="36.255590" lon="-115.247480">
        <ele>712.559</ele>
        <time>2018-12-28T18:51:22Z</time>
      </trkpt>
      <trkpt lat="36.255390" lon="-115.247390">
        <ele>712.497</ele>
        <time>2018-12-28T18:51:42Z</time>
      </trkpt>
      <trkpt lat="36.255240" lon="-115.247330">
        <ele>712.342</ele>
        <time>2018-12-28T18:52:02Z</time>
      </trkpt>
      <trkpt lat="36.255080" lon="-115.247270">
        <ele>712.243</ele>
        <time>2018-12-28T18:52:22Z</time>
      </trkpt>
      <trkpt lat="36.254780" lon="-115.247160">
        <ele>712.097</ele>
        <time>2018-12-28T18:52:42Z</time>
      </trkpt>
      <trkpt lat="36.254440" lon="-115.247070">
        <ele>712.026</ele>
        <time>2018-12-28T18:53:02Z</time>
      </trkpt>
      <trkpt lat="36.254150" lon="-115.247010">
        <ele>712.135</ele>
        <time>2018-12-28T18:53:22Z</time>
      </trkpt>
      <trkpt lat="36.253850" lon="-115.246950">
        <ele>712.065</ele>
        <time>2018-12-28T18:53:42Z</time>
      </trkpt>
      <trkpt lat="36.253620" lon="-115.246920">
        <ele>711.945</ele>
        <time>2018-12-28T18:54:02Z</time>
      </trkpt>
      <trkpt lat="36.253360" lon="-115.246890">
        <ele>711.947</ele>
        <time>2018-12-28T18:54:22Z</time>
      </trkpt>
      <trkpt lat="36.253100" lon="-115.246880">
        <ele>712.011</ele>
        <time>2018-12-28T18:54:42Z</time>
      </trkpt>
      <trkpt lat="36.252870" lon="-115.246880">
        <ele>712.108</ele>
        <time>2018-12-28T18:55:02Z</time>
      </trkpt>
      <trkpt lat="36.252550" lon="-115.246870">
        <ele>711.827</ele>
        <time>2018-12-28T18:55:22Z</time>
      </trkpt>
      <trkpt lat="36.252280" lon="-115.246870">
        <ele>711.825</ele>
        <time>2018-12-28T18:55:42Z</time>
      </trkpt>
      <trkpt lat="36.251900" lon="-115.246880">
        <ele>712.330</ele>
        <time>2018-12-28T18:56:02Z</time>
      </trkpt>
      <trkpt lat="36.251470" lon="-115.246880">
        <ele>712.561</ele>
        <time>2018-12-28T18:56:22Z</time>
      </trkpt>
      <trkpt lat="36.250220" lon="-115.246870">
        <ele>710.845</ele>
        <time>2018-12-28T18:56:42Z</time>
      </trkpt>
      <trkpt lat="36.249190" lon="-115.246860">
        <ele>710.434</ele>
        <time>2018-12-28T18:57:02Z</time>
      </trkpt>
      <trkpt lat="36.248010" lon="-115.246860">
        <ele>710.013</ele>
        <time>2018-12-28T18:57:22Z</time>
      </trkpt>
      <trkpt lat="36.247040" lon="-115.246870">
        <ele>709.933</ele>
        <time>2018-12-28T18:57:42Z</time>
      </trkpt>
      <trkpt lat="36.246310" lon="-115.246880">
        <ele>709.789</ele>
        <time>2018-12-28T18:58:02Z</time>
      </trkpt>
      <trkpt lat="36.244970" lon="-115.246900">
        <ele>709.506</ele>
        <time>2018-12-28T18:58:22Z</time>
      </trkpt>
      <trkpt lat="36.244350" lon="-115.246910">
        <ele>709.426</ele>
        <time>2018-12-28T18:58:42Z</time>
      </trkpt>
      <trkpt lat="36.242500" lon="-115.246930">
        <ele>709.108</ele>
        <time>2018-12-28T18:59:02Z</time>
      </trkpt>
      <trkpt lat="36.240670" lon="-115.246960">
        <ele>708.951</ele>
        <time>2018-12-28T18:59:22Z</time>
      </trkpt>
      <trkpt lat="36.240160" lon="-115.246970">
        <ele>708.979</ele>
        <time>2018-12-28T18:59:42Z</time>
      </trkpt>
      <trkpt lat="36.238640" lon="-115.246990">
        <ele>708.744</ele>
        <time>2018-12-28T19:00:02Z</time>
      </trkpt>
      <trkpt lat="36.237600" lon="-115.247000">
        <ele>708.495</ele>
        <time>2018-12-28T19:00:22Z</time>
      </trkpt>
      <trkpt lat="36.235310" lon="-115.247030">
        <ele>707.899</ele>
        <time>2018-12-28T19:00:42Z</time>
      </trkpt>
      <trkpt lat="36.234950" lon="-115.247040">
        <ele>707.628</ele>
        <time>2018-12-28T19:01:02Z</time>
      </trkpt>
      <trkpt lat="36.233530" lon="-115.247060">
        <ele>707.247</ele>
        <time>2018-12-28T19:01:22Z</time>
      </trkpt>
      <trkpt lat="36.232500" lon="-115.247060">
        <ele>706.887</ele>
        <time>2018-12-28T19:01:42Z</time>
      </trkpt>
      <trkpt lat="36.231630" lon="-115.247050">
        <ele>706.629</ele>
        <time>2018-12-28T19:02:02Z</time>
      </trkpt>
      <trkpt lat="36.230430" lon="-115.247040">
        <ele>706.000</ele>
        <time>2018-12-28T19:02:22Z</time>
      </trkpt>
      <trkpt lat="36.229650" lon="-115.247040">
        <ele>705.620</ele>
        <time>2018-12-28T19:02:42Z</time>
      </trkpt>
      <trkpt lat="36.228560" lon="-115.247030">
        <ele>705.308</ele>
        <time>2018-12-28T19:03:02Z</time>
      </trkpt>
      <trkpt lat="36.227560" lon="-115.247020">
        <ele>705.085</ele>
        <time>2018-12-28T19:03:22Z</time>
      </trkpt>
      <trkpt lat="36.225810" lon="-115.246990">
        <ele>704.643</ele>
        <time>2018-12-28T19:03:42Z</time>
      </trkpt>
      <trkpt lat="36.225580" lon="-115.246990">
        <ele>704.538</ele>
        <time>2018-12-28T19:04:02Z</time>
      </trkpt>
      <trkpt lat="36.225390" lon="-115.246990">
        <ele>704.559</ele>
        <time>2018-12-28T19:04:22Z</time>
      </trkpt>
      <trkpt lat="36.224100" lon="-115.247000">
        <ele>704.643</ele>
        <time>2018-12-28T19:04:42Z</time>
      </trkpt>
      <trkpt lat="36.222840" lon="-115.247000">
        <ele>704.542</ele>
        <time>2018-12-28T19:05:02Z</time>
      </trkpt>
      <trkpt lat="36.222470" lon="-115.247000">
        <ele>704.671</ele>
        <time>2018-12-28T19:05:22Z</time>
      </trkpt>
      <trkpt lat="36.220970" lon="-115.246990">
        <ele>704.911</ele>
        <time>2018-12-28T19:05:42Z</time>
      </trkpt>
      <trkpt lat="36.220310" lon="-115.246990">
        <ele>705.088</ele>
        <time>2018-12-28T19:06:02Z</time>
      </trkpt>
      <trkpt lat="36.217600" lon="-115.246970">
        <ele>706.324</ele>
        <time>2018-12-28T19:06:22Z</time>
      </trkpt>
      <trkpt lat="36.217470" lon="-115.246970">
        <ele>706.426</ele>
        <time>2018-12-28T19:06:42Z</time>
      </trkpt>
      <trkpt lat="36.217060" lon="-115.246950">
        <ele>706.508</ele>
        <time>2018-12-28T19:07:02Z</time>
      </trkpt>
      <trkpt lat="36.216570" lon="-115.246940">
        <ele>706.741</ele>
        <time>2018-12-28T19:07:22Z</time>
      </trkpt>
      <trkpt lat="36.216060" lon="-115.246900">
        <ele>706.879</ele>
        <time>2018-12-28T19:07:42Z</time>
      </trkpt>
      <trkpt lat="36.215550" lon="-115.246850">
        <ele>706.914</ele>
        <time>2018-12-28T19:08:02Z</time>
      </trkpt>
      <trkpt lat="36.215100" lon="-115.246800">
        <ele>707.235</ele>
        <time>2018-12-28T19:08:22Z</time>
      </trkpt>
      <trkpt lat="36.214900" lon="-115.246780">
        <ele>707.379</ele>
        <time>2018-12-28T19:08:42Z</time>
      </trkpt>
      <trkpt lat="36.214680" lon="-115.246750">
        <ele>707.458</ele>
        <time>2018-12-28T19:09:02Z</time>
      </trkpt>
      <trkpt lat="36.214250" lon="-115.246680">
        <ele>707.557</ele>
        <time>2018-12-28T19:09:22Z</time>
      </trkpt>
      <trkpt lat="36.213940" lon="-115.246630">
        <ele>707.727</ele>
        <time>2018-12-28T19:09:42Z</time>
      </trkpt>
      <trkpt lat="36.213470" lon="-115.246540">
        <ele>708.087</ele>
        <time>2018-12-28T19:10:02Z</time>
      </trkpt>
      <trkpt lat="36.213160" lon="-115.246470">
        <ele>708.142</ele>
        <time>2018-12-28T19:10:22Z</time>
      </trkpt>
      <trkpt lat="36.212850" lon="-115.246410">
        <ele>708.226</ele>
        <time>2018-12-28T19:10:42Z</time>
      </trkpt>
      <trkpt lat="36.212570" lon="-115.246340">
        <ele>708.308</ele>
        <time>2018-12-28T19:11:02Z</time>
      </trkpt>
      <trkpt lat="36.212350" lon="-115.246290">
        <ele>708.411</ele>
        <time>2018-12-28T19:11:22Z</time>
      </trkpt>
      <trkpt lat="36.211720" lon="-115.246120">
        <ele>708.819</ele>
        <time>2018-12-28T19:11:42Z</time>
      </trkpt>
      <trkpt lat="36.211460" lon="-115.246050">
        <ele>708.974</ele>
        <time>2018-12-28T19:12:02Z</time>
      </trkpt>
      <trkpt lat="36.211320" lon="-115.246010">
        <ele>708.965</ele>
        <time>2018-12-28T19:12:22Z</time>
      </trkpt>
      <trkpt lat="36.210580" lon="-115.245790">
        <ele>709.379</ele>
        <time>2018-12-28T19:12:42Z</time>
      </trkpt>
      <trkpt lat="36.210260" lon="-115.245690">
        <ele>709.428</ele>
        <time>2018-12-28T19:13:02Z</time>
      </trkpt>
      <trkpt lat="36.209940" lon="-115.245600">
        <ele>709.527</ele>
        <time>2018-12-28T19:13:22Z</time>
      </trkpt>
      <trkpt lat="36.209710" lon="-115.245530">
        <ele>709.567</ele>
        <time>2018-12-28T19:13:42Z</time>
      </trkpt>
      <trkpt lat="36.209500" lon="-115.245470">
        <ele>709.579</ele>
        <time>2018-12-28T19:14:02Z</time>
      </trkpt>
      <trkpt lat="36.209160" lon="-115.245380">
        <ele>709.605</ele>
        <time>2018-12-28T19:14:22Z</time>
      </trkpt>
      <trkpt lat="36.208950" lon="-115.245330">
        <ele>709.725</ele>
        <time>2018-12-28T19:14:42Z</time>
      </trkpt>
      <trkpt lat="36.208810" lon="-115.245300">
        <ele>709.708</ele>
        <time>2018-12-28T19:15:02Z</time>
      </trkpt>
      <trkpt lat="36.208620" lon="-115.245250">
        <ele>709.860</ele>
        <time>2018-12-28T19:15:22Z</time>
      </trkpt>
      <trkpt lat="36.208520" lon="-115.245230">
        <ele>709.838</ele>
        <time>2018-12-28T19:15:42Z</time>
      </trkpt>
      <trkpt lat="36.207980" lon="-115.245120">
        <ele>710.033</ele>
        <time>2018-12-28T19:16:02Z</time>
      </trkpt>
      <trkpt lat="36.207430" lon="-115.245020">
        <ele>710.124</ele>
        <time>2018-12-28T19:16:22Z</time>
      </trkpt>
      <trkpt lat="36.207150" lon="-115.244980">
        <ele>710.228</ele>
        <time>2018-12-28T19:16:42Z</time>
      </trkpt>
      <trkpt lat="36.206570" lon="-115.244900">
        <ele>710.227</ele>
        <time>2018-12-28T19:17:02Z</time>
      </trkpt>
      <trkpt lat="36.206180" lon="-115.244850">
        <ele>710.596</ele>
        <time>2018-12-28T19:17:22Z</time>
      </trkpt>
      <trkpt lat="36.205720" lon="-115.244800">
        <ele>710.886</ele>
        <time>2018-12-28T19:17:42Z</time>
      </trkpt>
      <trkpt lat="36.204890" lon="-115.244740">
        <ele>711.083</ele>
        <time>2018-12-28T19:18:02Z</time>
      </trkpt>
      <trkpt lat="36.203960" lon="-115.244720">
        <ele>711.925</ele>
        <time>2018-12-28T19:18:22Z</time>
      </trkpt>
      <trkpt lat="36.203680" lon="-115.244720">
        <ele>712.117</ele>
        <time>2018-12-28T19:18:42Z</time>
      </trkpt>
      <trkpt lat="36.203230" lon="-115.244710">
        <ele>712.208</ele>
        <time>2018-12-28T19:19:02Z</time>
      </trkpt>
      <trkpt lat="36.201570" lon="-115.244700">
        <ele>713.361</ele>
        <time>2018-12-28T19:19:22Z</time>
      </trkpt>
      <trkpt lat="36.200530" lon="-115.244690">
        <ele>714.399</ele>
        <time>2018-12-28T19:19:42Z</time>
      </trkpt>
      <trkpt lat="36.198430" lon="-115.244680">
        <ele>716.934</ele>
        <time>2018-12-28T19:20:02Z</time>
      </trkpt>
      <trkpt lat="36.196890" lon="-115.244660">
        <ele>716.695</ele>
        <time>2018-12-28T19:20:22Z</time>
      </trkpt>
      <trkpt lat="36.196030" lon="-115.244660">
        <ele>716.989</ele>
        <time>2018-12-28T19:20:42Z</time>
      </trkpt>
      <trkpt lat="36.195670" lon="-115.244650">
        <ele>716.918</ele>
        <time>2018-12-28T19:21:02Z</time>
      </trkpt>
      <trkpt lat="36.195320" lon="-115.244650">
        <ele>716.977</ele>
        <time>2018-12-28T19:21:22Z</time>
      </trkpt>
      <trkpt lat="36.194910" lon="-115.244650">
        <ele>716.867</ele>
        <time>2018-12-28T19:21:42Z</time>
      </trkpt>
      <trkpt lat="36.194360" lon="-115.244640">
        <ele>717.343</ele>
        <time>2018-12-28T19:22:02Z</time>
      </trkpt>
      <trkpt lat="36.193970" lon="-115.244640">
        <ele>717.764</ele>
        <time>2018-12-28T19:22:22Z</time>
      </trkpt>
      <trkpt lat="36.192540" lon="-115.244640">
        <ele>718.910</ele>
        <time>2018-12-28T19:22:42Z</time>
      </trkpt>
      <trkpt lat="36.191700" lon="-115.244640">
        <ele>720.008</ele>
        <time>2018-12-28T19:23:02Z</time>
      </trkpt>
      <trkpt lat="36.189340" lon="-115.244630">
        <ele>724.027</ele>
        <time>2018-12-28T19:23:22Z</time>
      </trkpt>
      <trkpt lat="36.188700" lon="-115.244630">
        <ele>724.245</ele>
        <time>2018-12-28T19:23:42Z</time>
      </trkpt>
      <trkpt lat="36.188600" lon="-115.244630">
        <ele>724.230</ele>
        <time>2018-12-28T19:24:02Z</time>
      </trkpt>
      <trkpt lat="36.188590" lon="-115.244630">
        <ele>724.261</ele>
        <time>2018-12-28T19:24:22Z</time>
      </trkpt>
      <trkpt lat="36.182530" lon="-115.244600">
        <ele>729.175</ele>
        <time>2018-12-28T19:24:42Z</time>
      </trkpt>
      <trkpt lat="36.182080" lon="-115.244580">
        <ele>729.094</ele>
        <time>2018-12-28T19:25:02Z</time>
      </trkpt>
      <trkpt lat="36.181560" lon="-115.244570">
        <ele>728.883</ele>
        <time>2018-12-28T19:25:22Z</time>
      </trkpt>
      <trkpt lat="36.181320" lon="-115.244570">
        <ele>728.853</ele>
        <time>2018-12-28T19:25:42Z</time>
      </trkpt>
      <trkpt lat="36.181260" lon="-115.244560">
        <ele>728.852</ele>
        <time>2018-12-28T19:26:02Z</time>
      </trkpt>
      <trkpt lat="36.181230" lon="-115.244560">
        <ele>728.853</ele>
        <time>2018-12-28T19:26:22Z</time>
      </trkpt>
      <trkpt lat="36.179610" lon="-115.244560">
        <ele>729.208</ele>
        <time>2018-12-28T19:26:42Z</time>
      </trkpt>
      <trkpt lat="36.179080" lon="-115.244530">
        <ele>729.408</ele>
        <time>2018-12-28T19:27:02Z</time>
      </trkpt>
      <trkpt lat="36.178830" lon="-115.244510">
        <ele>729.428</ele>
        <time>2018-12-28T19:27:22Z</time>
      </trkpt>
      <trkpt lat="36.178570" lon="-115.244480">
        <ele>729.556</ele>
        <time>2018-12-28T19:27:42Z</time>
      </trkpt>
      <trkpt lat="36.178310" lon="-115.244430">
        <ele>729.611</ele>
        <time>2018-12-28T19:28:02Z</time>
      </trkpt>
      <trkpt lat="36.178130" lon="-115.244390">
        <ele>729.722</ele>
        <time>2018-12-28T19:28:22Z</time>
      </trkpt>
      <trkpt lat="36.177980" lon="-115.244350">
        <ele>729.656</ele>
        <time>2018-12-28T19:28:42Z</time>
      </trkpt>
      <trkpt lat="36.177840" lon="-115.244310">
        <ele>729.545</ele>
        <time>2018-12-28T19:29:02Z</time>
      </trkpt>
      <trkpt lat="36.177680" lon="-115.244270">
        <ele>729.224</ele>
        <time>2018-12-28T19:29:22Z</time>
      </trkpt>
      <trkpt lat="36.177270" lon="-115.244130">
        <ele>729.254</ele>
        <time>2018-12-28T19:29:42Z</time>
      </trkpt>
      <trkpt lat="36.177160" lon="-115.244080">
        <ele>729.282</ele>
        <time>2018-12-28T19:30:02Z</time>
      </trkpt>
      <trkpt lat="36.176970" lon="-115.243990">
        <ele>729.243</ele>
        <time>2018-12-28T19:30:22Z</time>
      </trkpt>
      <trkpt lat="36.176820" lon="-115.243910">
        <ele>729.217</ele>
        <time>2018-12-28T19:30:42Z</time>
      </trkpt>
      <trkpt lat="36.176610" lon="-115.243800">
        <ele>729.108</ele>
        <time>2018-12-28T19:31:02Z</time>
      </trkpt>
      <trkpt lat="36.176470" lon="-115.243710">
        <ele>729.081</ele>
        <time>2018-12-28T19:31:22Z</time>
      </trkpt>
      <trkpt lat="36.176340" lon="-115.243610">
        <ele>728.869</ele>
        <time>2018-12-28T19:31:42Z</time>
      </trkpt>
      <trkpt lat="36.176030" lon="-115.243380">
        <ele>728.684</ele>
        <time>2018-12-28T19:32:02Z</time>
      </trkpt>
      <trkpt lat="36.175890" lon="-115.243270">
        <ele>728.415</ele>
        <time>2018-12-28T19:32:22Z</time>
      </trkpt>
      <trkpt lat="36.175770" lon="-115.243150">
        <ele>728.249</ele>
        <time>2018-12-28T19:32:42Z</time>
      </trkpt>
      <trkpt lat="36.175290" lon="-115.242680">
        <ele>727.888</ele>
        <time>2018-12-28T19:33:02Z</time>
      </trkpt>
      <trkpt lat="36.175090" lon="-115.242430">
        <ele>727.497</ele>
        <time>2018-12-28T19:33:22Z</time>
      </trkpt>
      <trkpt lat="36.174870" lon="-115.242170">
        <ele>727.077</ele>
        <time>2018-12-28T19:33:42Z</time>
      </trkpt>
      <trkpt lat="36.174670" lon="-115.241870">
        <ele>726.664</ele>
        <time>2018-12-28T19:34:02Z</time>
      </trkpt>
      <trkpt lat="36.174510" lon="-115.241620">
        <ele>726.106</ele>
        <time>2018-12-28T19:34:22Z</time>
      </trkpt>
      <trkpt lat="36.174370" lon="-115.241390">
        <ele>725.816</ele>
        <time>2018-12-28T19:34:42Z</time>
      </trkpt>
      <trkpt lat="36.174360" lon="-115.241370">
        <ele>725.808</ele>
        <time>2018-12-28T19:35:02Z</time>
      </trkpt>
      <trkpt lat="36.174250" lon="-115.241170">
        <ele>725.729</ele>
        <time>2018-12-28T19:35:22Z</time>
      </trkpt>
      <trkpt lat="36.174130" lon="-115.240930">
        <ele>725.387</ele>
        <time>2018-12-28T19:35:42Z</time>
      </trkpt>
      <trkpt lat="36.173980" lon="-115.240600">
        <ele>724.872</ele>
        <time>2018-12-28T19:36:02Z</time>
      </trkpt>
      <trkpt lat="36.173890" lon="-115.240380">
        <ele>724.423</ele>
        <time>2018-12-28T19:36:22Z</time>
      </trkpt>
      <trkpt lat="36.173800" lon="-115.240140">
        <ele>724.017</ele>
        <time>2018-12-28T19:36:42Z</time>
      </trkpt>
      <trkpt lat="36.173720" lon="-115.239880">
        <ele>723.666</ele>
        <time>2018-12-28T19:37:02Z</time>
      </trkpt>
      <trkpt lat="36.173660" lon="-115.239630">
        <ele>723.225</ele>
        <time>2018-12-28T19:37:22Z</time>
      </trkpt>
      <trkpt lat="36.173590" lon="-115.239370">
        <ele>722.755</ele>
        <time>2018-12-28T19:37:42Z</time>
      </trkpt>
      <trkpt lat="36.173540" lon="-115.239100">
        <ele>722.243</ele>
        <time>2018-12-28T19:38:02Z</time>
      </trkpt>
      <trkpt lat="36.173500" lon="-115.238860">
        <ele>721.864</ele>
        <time>2018-12-28T19:38:22Z</time>
      </trkpt>
      <trkpt lat="36.173470" lon="-115.238570">
        <ele>721.210</ele>
        <time>2018-12-28T19:38:42Z</time>
      </trkpt>
      <trkpt lat="36.173430" lon="-115.238160">
        <ele>720.508</ele>
        <time>2018-12-28T19:39:02Z</time>
      </trkpt>
      <trkpt lat="36.173410" lon="-115.237800">
        <ele>719.927</ele>
        <time>2018-12-28T19:39:22Z</time>
      </trkpt>
      <trkpt lat="36.173400" lon="-115.237460">
        <ele>719.345</ele>
        <time>2018-12-28T19:39:42Z</time>
      </trkpt>
      <trkpt lat="36.173390" lon="-115.237030">
        <ele>718.710</ele>
        <time>2018-12-28T19:40:02Z</time>
      </trkpt>
      <trkpt lat="36.173380" lon="-115.236610">
        <ele>718.081</ele>
        <time>2018-12-28T19:40:22Z</time>
      </trkpt>
      <trkpt lat="36.173370" lon="-115.236160">
        <ele>717.315</ele>
        <time>2018-12-28T19:40:42Z</time>
      </trkpt>
      <trkpt lat="36.173370" lon="-115.235850">
        <ele>716.964</ele>
        <time>2018-12-28T19:41:02Z</time>
      </trkpt>
      <trkpt lat="36.173380" lon="-115.235430">
        <ele>716.323</ele>
        <time>2018-12-28T19:41:22Z</time>
      </trkpt>
      <trkpt lat="36.173390" lon="-115.235010">
        <ele>715.773</ele>
        <time>2018-12-28T19:41:42Z</time>
      </trkpt>
      <trkpt lat="36.173400" lon="-115.234680">
        <ele>715.234</ele>
        <time>2018-12-28T19:42:02Z</time>
      </trkpt>
      <trkpt lat="36.173410" lon="-115.234320">
        <ele>714.855</ele>
        <time>2018-12-28T19:42:22Z</time>
      </trkpt>
      <trkpt lat="36.173440" lon="-115.233870">
        <ele>714.210</ele>
        <time>2018-12-28T19:42:42Z</time>
      </trkpt>
      <trkpt lat="36.173480" lon="-115.233330">
        <ele>713.408</ele>
        <time>2018-12-28T19:43:02Z</time>
      </trkpt>
      <trkpt lat="36.173730" lon="-115.230750">
        <ele>709.346</ele>
        <time>2018-12-28T19:43:22Z</time>
      </trkpt>
      <trkpt lat="36.173830" lon="-115.229740">
        <ele>708.234</ele>
        <time>2018-12-28T19:43:42Z</time>
      </trkpt>
      <trkpt lat="36.173860" lon="-115.229320">
        <ele>707.779</ele>
        <time>2018-12-28T19:44:02Z</time>
      </trkpt>
      <trkpt lat="36.173900" lon="-115.228940">
        <ele>707.180</ele>
        <time>2018-12-28T19:44:22Z</time>
      </trkpt>
      <trkpt lat="36.173940" lon="-115.228330">
        <ele>706.124</ele>
        <time>2018-12-28T19:44:42Z</time>
      </trkpt>
      <trkpt lat="36.173970" lon="-115.227760">
        <ele>705.373</ele>
        <time>2018-12-28T19:45:02Z</time>
      </trkpt>
      <trkpt lat="36.173980" lon="-115.227490">
        <ele>705.052</ele>
        <time>2018-12-28T19:45:22Z</time>
      </trkpt>
      <trkpt lat="36.173980" lon="-115.227230">
        <ele>704.742</ele>
        <time>2018-12-28T19:45:42Z</time>
      </trkpt>
      <trkpt lat="36.173990" lon="-115.226950">
        <ele>704.284</ele>
        <time>2018-12-28T19:46:02Z</time>
      </trkpt>
      <trkpt lat="36.173990" lon="-115.226670">
        <ele>703.807</ele>
        <time>2018-12-28T19:46:22Z</time>
      </trkpt>
      <trkpt lat="36.173990" lon="-115.225830">
        <ele>702.717</ele>
        <time>2018-12-28T19:46:42Z</time>
      </trkpt>
      <trkpt lat="36.173980" lon="-115.224750">
        <ele>701.408</ele>
        <time>2018-12-28T19:47:02Z</time>
      </trkpt>
      <trkpt lat="36.173980" lon="-115.224550">
        <ele>701.261</ele>
        <time>2018-12-28T19:47:22Z</time>
      </trkpt>
      <trkpt lat="36.173980" lon="-115.224120">
        <ele>700.819</ele>
        <time>2018-12-28T19:47:42Z</time>
      </trkpt>
      <trkpt lat="36.173970" lon="-115.223680">
        <ele>700.234</ele>
        <time>2018-12-28T19:48:02Z</time>
      </trkpt>
      <trkpt lat="36.173930" lon="-115.220470">
        <ele>697.535</ele>
        <time>2018-12-28T19:48:22Z</time>
      </trkpt>
      <trkpt lat="36.173900" lon="-115.219710">
        <ele>696.939</ele>
        <time>2018-12-28T19:48:42Z</time>
      </trkpt>
      <trkpt lat="36.173850" lon="-115.215370">
        <ele>689.418</ele>
        <time>2018-12-28T19:49:02Z</time>
      </trkpt>
      <trkpt lat="36.173780" lon="-115.213840">
        <ele>684.817</ele>
        <time>2018-12-28T19:49:22Z</time>
      </trkpt>
      <trkpt lat="36.173740" lon="-115.212690">
        <ele>681.227</ele>
        <time>2018-12-28T19:49:42Z</time>
      </trkpt>
      <trkpt lat="36.173650" lon="-115.211110">
        <ele>678.194</ele>
        <time>2018-12-28T19:50:02Z</time>
      </trkpt>
      <trkpt lat="36.173380" lon="-115.206060">
        <ele>671.757</ele>
        <time>2018-12-28T19:50:22Z</time>
      </trkpt>
      <trkpt lat="36.173360" lon="-115.205800">
        <ele>671.522</ele>
        <time>2018-12-28T19:50:42Z</time>
      </trkpt>
      <trkpt lat="36.173350" lon="-115.205520">
        <ele>671.308</ele>
        <time>2018-12-28T19:51:02Z</time>
      </trkpt>
      <trkpt lat="36.173340" lon="-115.205370">
        <ele>671.232</ele>
        <time>2018-12-28T19:51:22Z</time>
      </trkpt>
      <trkpt lat="36.173290" lon="-115.204480">
        <ele>670.080</ele>
        <time>2018-12-28T19:51:42Z</time>
      </trkpt>
      <trkpt lat="36.173260" lon="-115.203940">
        <ele>669.245</ele>
        <time>2018-12-28T19:52:02Z</time>
      </trkpt>
      <trkpt lat="36.173260" lon="-115.203390">
        <ele>668.976</ele>
        <time>2018-12-28T19:52:22Z</time>
      </trkpt>
      <trkpt lat="36.173280" lon="-115.202780">
        <ele>668.490</ele>
        <time>2018-12-28T19:52:42Z</time>
      </trkpt>
      <trkpt lat="36.173330" lon="-115.202190">
        <ele>667.849</ele>
        <time>2018-12-28T19:53:02Z</time>
      </trkpt>
      <trkpt lat="36.173410" lon="-115.201520">
        <ele>667.068</ele>
        <time>2018-12-28T19:53:22Z</time>
      </trkpt>
      <trkpt lat="36.173530" lon="-115.200940">
        <ele>666.348</ele>
        <time>2018-12-28T19:53:42Z</time>
      </trkpt>
      <trkpt lat="36.173720" lon="-115.200150">
        <ele>665.529</ele>
        <time>2018-12-28T19:54:02Z</time>
      </trkpt>
      <trkpt lat="36.173920" lon="-115.199510">
        <ele>665.100</ele>
        <time>2018-12-28T19:54:22Z</time>
      </trkpt>
      <trkpt lat="36.174070" lon="-115.199110">
        <ele>664.520</ele>
        <time>2018-12-28T19:54:42Z</time>
      </trkpt>
      <trkpt lat="36.174490" lon="-115.197950">
        <ele>662.408</ele>
        <time>2018-12-28T19:55:02Z</time>
      </trkpt>
      <trkpt lat="36.174880" lon="-115.196900">
        <ele>661.645</ele>
        <time>2018-12-28T19:55:22Z</time>
      </trkpt>
      <trkpt lat="36.175390" lon="-115.195470">
        <ele>660.023</ele>
        <time>2018-12-28T19:55:42Z</time>
      </trkpt>
      <trkpt lat="36.175530" lon="-115.195050">
        <ele>659.638</ele>
        <time>2018-12-28T19:56:02Z</time>
      </trkpt>
      <trkpt lat="36.175700" lon="-115.194490">
        <ele>658.959</ele>
        <time>2018-12-28T19:56:22Z</time>
      </trkpt>
      <trkpt lat="36.175750" lon="-115.194270">
        <ele>658.783</ele>
        <time>2018-12-28T19:56:42Z</time>
      </trkpt>
      <trkpt lat="36.175810" lon="-115.194020">
        <ele>658.522</ele>
        <time>2018-12-28T19:57:02Z</time>
      </trkpt>
      <trkpt lat="36.175920" lon="-115.193540">
        <ele>658.061</ele>
        <time>2018-12-28T19:57:22Z</time>
      </trkpt>
      <trkpt lat="36.175980" lon="-115.193210">
        <ele>657.721</ele>
        <time>2018-12-28T19:57:42Z</time>
      </trkpt>
      <trkpt lat="36.176020" lon="-115.192990">
        <ele>657.486</ele>
        <time>2018-12-28T19:58:02Z</time>
      </trkpt>
      <trkpt lat="36.176050" lon="-115.192790">
        <ele>657.260</ele>
        <time>2018-12-28T19:58:22Z</time>
      </trkpt>
      <trkpt lat="36.176060" lon="-115.192690">
        <ele>657.126</ele>
        <time>2018-12-28T19:58:42Z</time>
      </trkpt>
      <trkpt lat="36.176070" lon="-115.192640">
        <ele>657.108</ele>
        <time>2018-12-28T19:59:02Z</time>
      </trkpt>
      <trkpt lat="36.176080" lon="-115.192530">
        <ele>656.951</ele>
        <time>2018-12-28T19:59:22Z</time>
      </trkpt>
      <trkpt lat="36.176090" lon="-115.192470">
        <ele>656.919</ele>
        <time>2018-12-28T19:59:42Z</time>
      </trkpt>
      <trkpt lat="36.176120" lon="-115.192150">
        <ele>656.644</ele>
        <time>2018-12-28T20:00:02Z</time>
      </trkpt>
      <trkpt lat="36.176130" lon="-115.192020">
        <ele>656.425</ele>
        <time>2018-12-28T20:00:22Z</time>
      </trkpt>
      <trkpt lat="36.176150" lon="-115.191770">
        <ele>656.159</ele>
        <time>2018-12-28T20:00:42Z</time>
      </trkpt>
      <trkpt lat="36.176170" lon="-115.191600">
        <ele>655.988</ele>
        <time>2018-12-28T20:01:02Z</time>
      </trkpt>
      <trkpt lat="36.176180" lon="-115.191420">
        <ele>655.617</ele>
        <time>2018-12-28T20:01:22Z</time>
      </trkpt>
      <trkpt lat="36.176190" lon="-115.191220">
        <ele>655.197</ele>
        <time>2018-12-28T20:01:42Z</time>
      </trkpt>
      <trkpt lat="36.176200" lon="-115.191060">
        <ele>654.658</ele>
        <time>2018-12-28T20:02:02Z</time>
      </trkpt>
      <trkpt lat="36.176200" lon="-115.190910">
        <ele>654.252</ele>
        <time>2018-12-28T20:02:22Z</time>
      </trkpt>
      <trkpt lat="36.176210" lon="-115.190730">
        <ele>653.617</ele>
        <time>2018-12-28T20:02:42Z</time>
      </trkpt>
      <trkpt lat="36.176210" lon="-115.190480">
        <ele>652.808</ele>
        <time>2018-12-28T20:03:02Z</time>
      </trkpt>
      <trkpt lat="36.176210" lon="-115.190240">
        <ele>651.918</ele>
        <time>2018-12-28T20:03:22Z</time>
      </trkpt>
      <trkpt lat="36.176210" lon="-115.190040">
        <ele>651.386</ele>
        <time>2018-12-28T20:03:42Z</time>
      </trkpt>
      <trkpt lat="36.176200" lon="-115.189800">
        <ele>650.691</ele>
        <time>2018-12-28T20:04:02Z</time>
      </trkpt>
      <trkpt lat="36.176140" lon="-115.188990">
        <ele>648.262</ele>
        <time>2018-12-28T20:04:22Z</time>
      </trkpt>
      <trkpt lat="36.176080" lon="-115.188400">
        <ele>646.866</ele>
        <time>2018-12-28T20:04:42Z</time>
      </trkpt>
      <trkpt lat="36.176040" lon="-115.188130">
        <ele>646.395</ele>
        <time>2018-12-28T20:05:02Z</time>
      </trkpt>
      <trkpt lat="36.176010" lon="-115.187900">
        <ele>645.944</ele>
        <time>2018-12-28T20:05:22Z</time>
      </trkpt>
      <trkpt lat="36.175950" lon="-115.187570">
        <ele>645.414</ele>
        <time>2018-12-28T20:05:42Z</time>
      </trkpt>
      <trkpt lat="36.175930" lon="-115.187430">
        <ele>645.126</ele>
        <time>2018-12-28T20:06:02Z</time>
      </trkpt>
      <trkpt lat="36.175840" lon="-115.187020">
        <ele>644.647</ele>
        <time>2018-12-28T20:06:22Z</time>
      </trkpt>
      <trkpt lat="36.175770" lon="-115.186710">
        <ele>644.411</ele>
        <time>2018-12-28T20:06:42Z</time>
      </trkpt>
      <trkpt lat="36.175680" lon="-115.186280">
        <ele>644.108</ele>
        <time>2018-12-28T20:07:02Z</time>
      </trkpt>
      <trkpt lat="36.175680" lon="-115.186270">
        <ele>644.165</ele>
        <time>2018-12-28T20:07:22Z</time>
      </trkpt>
      <trkpt lat="36.175610" lon="-115.185910">
        <ele>643.723</ele>
        <time>2018-12-28T20:07:42Z</time>
      </trkpt>
      <trkpt lat="36.175560" lon="-115.185650">
        <ele>643.548</ele>
        <time>2018-12-28T20:08:02Z</time>
      </trkpt>
      <trkpt lat="36.175410" lon="-115.184960">
        <ele>642.659</ele>
        <time>2018-12-28T20:08:22Z</time>
      </trkpt>
      <trkpt lat="36.175260" lon="-115.184220">
        <ele>641.463</ele>
        <time>2018-12-28T20:08:42Z</time>
      </trkpt>
      <trkpt lat="36.175200" lon="-115.183800">
        <ele>641.042</ele>
        <time>2018-12-28T20:09:02Z</time>
      </trkpt>
      <trkpt lat="36.175160" lon="-115.183550">
        <ele>640.871</ele>
        <time>2018-12-28T20:09:22Z</time>
      </trkpt>
      <trkpt lat="36.175110" lon="-115.183080">
        <ele>640.811</ele>
        <time>2018-12-28T20:09:42Z</time>
      </trkpt>
      <trkpt lat="36.175080" lon="-115.182640">
        <ele>640.886</ele>
        <time>2018-12-28T20:10:02Z</time>
      </trkpt>
      <trkpt lat="36.175070" lon="-115.182310">
        <ele>640.760</ele>
        <time>2018-12-28T20:10:22Z</time>
      </trkpt>
      <trkpt lat="36.175070" lon="-115.181970">
        <ele>640.726</ele>
        <time>2018-12-28T20:10:42Z</time>
      </trkpt>
      <trkpt lat="36.175080" lon="-115.181550">
        <ele>640.408</ele>
        <time>2018-12-28T20:11:02Z</time>
      </trkpt>
      <trkpt lat="36.175100" lon="-115.181200">
        <ele>640.311</ele>
        <time>2018-12-28T20:11:22Z</time>
      </trkpt>
      <trkpt lat="36.175120" lon="-115.179890">
        <ele>638.229</ele>
        <time>2018-12-28T20:11:42Z</time>
      </trkpt>
      <trkpt lat="36.175130" lon="-115.178420">
        <ele>637.784</ele>
        <time>2018-12-28T20:12:02Z</time>
      </trkpt>
      <trkpt lat="36.175090" lon="-115.175920">
        <ele>634.915</ele>
        <time>2018-12-28T20:12:22Z</time>
      </trkpt>
      <trkpt lat="36.175100" lon="-115.175610">
        <ele>634.669</ele>
        <time>2018-12-28T20:12:42Z</time>
      </trkpt>
      <trkpt lat="36.175100" lon="-115.175400">
        <ele>634.768</ele>
        <time>2018-12-28T20:13:02Z</time>
      </trkpt>
      <trkpt lat="36.175110" lon="-115.175280">
        <ele>634.647</ele>
        <time>2018-12-28T20:13:22Z</time>
      </trkpt>
      <trkpt lat="36.175108" lon="-115.175280">
        <ele>634.687</ele>
        <time>2018-12-28T20:13:42Z</time>
      </trkpt>
      <trkpt lat="36.175120" lon="-115.174940">
        <ele>634.672</ele>
        <time>2018-12-28T20:14:02Z</time>
      </trkpt>
      <trkpt lat="36.175220" lon="-115.174270">
        <ele>634.813</ele>
        <time>2018-12-28T20:14:22Z</time>
      </trkpt>
      <trkpt lat="36.175220" lon="-115.174260">
        <ele>634.814</ele>
        <time>2018-12-28T20:14:42Z</time>
      </trkpt>
      <trkpt lat="36.175240" lon="-115.174000">
        <ele>634.708</ele>
        <time>2018-12-28T20:15:02Z</time>
      </trkpt>
      <trkpt lat="36.175240" lon="-115.173990">
        <ele>634.750</ele>
        <time>2018-12-28T20:15:22Z</time>
      </trkpt>
      <trkpt lat="36.175250" lon="-115.173950">
        <ele>634.718</ele>
        <time>2018-12-28T20:15:42Z</time>
      </trkpt>
      <trkpt lat="36.175280" lon="-115.173620">
        <ele>634.883</ele>
        <time>2018-12-28T20:16:02Z</time>
      </trkpt>
      <trkpt lat="36.175320" lon="-115.173150">
        <ele>634.794</ele>
        <time>2018-12-28T20:16:22Z</time>
      </trkpt>
      <trkpt lat="36.175480" lon="-115.171690">
        <ele>633.038</ele>
        <time>2018-12-28T20:16:42Z</time>
      </trkpt>
      <trkpt lat="36.175560" lon="-115.170970">
        <ele>632.437</ele>
        <time>2018-12-28T20:17:02Z</time>
      </trkpt>
      <trkpt lat="36.175750" lon="-115.169320">
        <ele>631.216</ele>
        <time>2018-12-28T20:17:22Z</time>
      </trkpt>
      <trkpt lat="36.175800" lon="-115.168910">
        <ele>630.616</ele>
        <time>2018-12-28T20:17:42Z</time>
      </trkpt>
      <trkpt lat="36.175810" lon="-115.168740">
        <ele>630.194</ele>
        <time>2018-12-28T20:18:02Z</time>
      </trkpt>
      <trkpt lat="36.175840" lon="-115.168470">
        <ele>629.257</ele>
        <time>2018-12-28T20:18:22Z</time>
      </trkpt>
      <trkpt lat="36.175840" lon="-115.168420">
        <ele>629.222</ele>
        <time>2018-12-28T20:18:42Z</time>
      </trkpt>
      <trkpt lat="36.175870" lon="-115.167970">
        <ele>629.008</ele>
        <time>2018-12-28T20:19:02Z</time>
      </trkpt>
      <trkpt lat="36.175890" lon="-115.167430">
        <ele>628.942</ele>
        <time>2018-12-28T20:19:22Z</time>
      </trkpt>
      <trkpt lat="36.175900" lon="-115.166900">
        <ele>628.870</ele>
        <time>2018-12-28T20:19:42Z</time>
      </trkpt>
      <trkpt lat="36.175880" lon="-115.166020">
        <ele>628.775</ele>
        <time>2018-12-28T20:20:02Z</time>
      </trkpt>
      <trkpt lat="36.175850" lon="-115.165490">
        <ele>628.656</ele>
        <time>2018-12-28T20:20:22Z</time>
      </trkpt>
      <trkpt lat="36.175820" lon="-115.165160">
        <ele>628.670</ele>
        <time>2018-12-28T20:20:42Z</time>
      </trkpt>
      <trkpt lat="36.175800" lon="-115.164950">
        <ele>628.669</ele>
        <time>2018-12-28T20:21:02Z</time>
      </trkpt>
      <trkpt lat="36.175760" lon="-115.164560">
        <ele>628.538</ele>
        <time>2018-12-28T20:21:22Z</time>
      </trkpt>
      <trkpt lat="36.175720" lon="-115.164280">
        <ele>628.488</ele>
        <time>2018-12-28T20:21:42Z</time>
      </trkpt>
      <trkpt lat="36.175660" lon="-115.163880">
        <ele>628.373</ele>
        <time>2018-12-28T20:22:02Z</time>
      </trkpt>
      <trkpt lat="36.175580" lon="-115.163410">
        <ele>628.285</ele>
        <time>2018-12-28T20:22:22Z</time>
      </trkpt>
      <trkpt lat="36.175500" lon="-115.163000">
        <ele>627.913</ele>
        <time>2018-12-28T20:22:42Z</time>
      </trkpt>
      <trkpt lat="36.175270" lon="-115.161730">
        <ele>626.808</ele>
        <time>2018-12-28T20:23:02Z</time>
      </trkpt>
      <trkpt lat="36.175150" lon="-115.160890">
        <ele>626.180</ele>
        <time>2018-12-28T20:23:22Z</time>
      </trkpt>
      <trkpt lat="36.175120" lon="-115.160720">
        <ele>625.978</ele>
        <time>2018-12-28T20:23:42Z</time>
      </trkpt>
      <trkpt lat="36.175110" lon="-115.160630">
        <ele>625.853</ele>
        <time>2018-12-28T20:24:02Z</time>
      </trkpt>
      <trkpt lat="36.175100" lon="-115.160500">
        <ele>625.724</ele>
        <time>2018-12-28T20:24:22Z</time>
      </trkpt>
      <trkpt lat="36.174920" lon="-115.159400">
        <ele>625.478</ele>
        <time>2018-12-28T20:24:42Z</time>
      </trkpt>
      <trkpt lat="36.174770" lon="-115.158420">
        <ele>625.087</ele>
        <time>2018-12-28T20:25:02Z</time>
      </trkpt>
      <trkpt lat="36.174720" lon="-115.158090">
        <ele>625.046</ele>
        <time>2018-12-28T20:25:22Z</time>
      </trkpt>
      <trkpt lat="36.174530" lon="-115.156830">
        <ele>623.636</ele>
        <time>2018-12-28T20:25:42Z</time>
      </trkpt>
      <trkpt lat="36.174460" lon="-115.156400">
        <ele>622.977</ele>
        <time>2018-12-28T20:26:02Z</time>
      </trkpt>
      <trkpt lat="36.174350" lon="-115.155620">
        <ele>622.461</ele>
        <time>2018-12-28T20:26:22Z</time>
      </trkpt>
      <trkpt lat="36.174320" lon="-115.155470">
        <ele>622.427</ele>
        <time>2018-12-28T20:26:42Z</time>
      </trkpt>
      <trkpt lat="36.174290" lon="-115.155260">
        <ele>622.408</ele>
        <time>2018-12-28T20:27:02Z</time>
      </trkpt>
      <trkpt lat="36.174270" lon="-115.155110">
        <ele>622.430</ele>
        <time>2018-12-28T20:27:22Z</time>
      </trkpt>
      <trkpt lat="36.174260" lon="-115.155070">
        <ele>622.588</ele>
        <time>2018-12-28T20:27:42Z</time>
      </trkpt>
      <trkpt lat="36.174230" lon="-115.154840">
        <ele>622.553</ele>
        <time>2018-12-28T20:28:02Z</time>
      </trkpt>
      <trkpt lat="36.174210" lon="-115.154710">
        <ele>622.574</ele>
        <time>2018-12-28T20:28:22Z</time>
      </trkpt>
      <trkpt lat="36.174170" lon="-115.154490">
        <ele>622.538</ele>
        <time>2018-12-28T20:28:42Z</time>
      </trkpt>
      <trkpt lat="36.174080" lon="-115.153890">
        <ele>622.577</ele>
        <time>2018-12-28T20:29:02Z</time>
      </trkpt>
      <trkpt lat="36.174060" lon="-115.153640">
        <ele>622.586</ele>
        <time>2018-12-28T20:29:22Z</time>
      </trkpt>
      <trkpt lat="36.174040" lon="-115.153450">
        <ele>622.496</ele>
        <time>2018-12-28T20:29:42Z</time>
      </trkpt>
      <trkpt lat="36.174030" lon="-115.153250">
        <ele>622.486</ele>
        <time>2018-12-28T20:30:02Z</time>
      </trkpt>
      <trkpt lat="36.174030" lon="-115.153240">
        <ele>622.460</ele>
        <time>2018-12-28T20:30:22Z</time>
      </trkpt>
      <trkpt lat="36.174030" lon="-115.153060">
        <ele>622.326</ele>
        <time>2018-12-28T20:30:42Z</time>
      </trkpt>
      <trkpt lat="36.174030" lon="-115.152910">
        <ele>622.208</ele>
        <time>2018-12-28T20:31:02Z</time>
      </trkpt>
      <trkpt lat="36.174050" lon="-115.152580">
        <ele>622.121</ele>
        <time>2018-12-28T20:31:22Z</time>
      </trkpt>
      <trkpt lat="36.174050" lon="-115.152520">
        <ele>622.049</ele>
        <time>2018-12-28T20:31:42Z</time>
      </trkpt>
      <trkpt lat="36.174110" lon="-115.152120">
        <ele>621.744</ele>
        <time>2018-12-28T20:32:02Z</time>
      </trkpt>
      <trkpt lat="36.174130" lon="-115.151960">
        <ele>621.675</ele>
        <time>2018-12-28T20:32:22Z</time>
      </trkpt>
      <trkpt lat="36.174190" lon="-115.151690">
        <ele>621.479</ele>
        <time>2018-12-28T20:32:42Z</time>
      </trkpt>
      <trkpt lat="36.174290" lon="-115.151300">
        <ele>621.178</ele>
        <time>2018-12-28T20:33:02Z</time>
      </trkpt>
      <trkpt lat="36.174390" lon="-115.150940">
        <ele>620.857</ele>
        <time>2018-12-28T20:33:22Z</time>
      </trkpt>
      <trkpt lat="36.174530" lon="-115.150370">
        <ele>620.547</ele>
        <time>2018-12-28T20:33:42Z</time>
      </trkpt>
      <trkpt lat="36.174590" lon="-115.150110">
        <ele>620.364</ele>
        <time>2018-12-28T20:34:02Z</time>
      </trkpt>
      <trkpt lat="36.174620" lon="-115.149950">
        <ele>620.206</ele>
        <time>2018-12-28T20:34:22Z</time>
      </trkpt>
      <trkpt lat="36.174618" lon="-115.149954">
        <ele>620.216</ele>
        <time>2018-12-28T20:34:42Z</time>
      </trkpt>
      <trkpt lat="36.174770" lon="-115.149280">
        <ele>619.808</ele>
        <time>2018-12-28T20:35:02Z</time>
      </trkpt>
      <trkpt lat="36.174770" lon="-115.149270">
        <ele>619.839</ele>
        <time>2018-12-28T20:35:22Z</time>
      </trkpt>
      <trkpt lat="36.174780" lon="-115.149260">
        <ele>619.837</ele>
        <time>2018-12-28T20:35:42Z</time>
      </trkpt>
      <trkpt lat="36.174800" lon="-115.149170">
        <ele>619.882</ele>
        <time>2018-12-28T20:36:02Z</time>
      </trkpt>
      <trkpt lat="36.174880" lon="-115.148840">
        <ele>619.623</ele>
        <time>2018-12-28T20:36:22Z</time>
      </trkpt>
      <trkpt lat="36.175250" lon="-115.147410">
        <ele>617.677</ele>
        <time>2018-12-28T20:36:42Z</time>
      </trkpt>
      <trkpt lat="36.175330" lon="-115.147050">
        <ele>617.086</ele>
        <time>2018-12-28T20:37:02Z</time>
      </trkpt>
      <trkpt lat="36.175360" lon="-115.146910">
        <ele>616.975</ele>
        <time>2018-12-28T20:37:22Z</time>
      </trkpt>
      <trkpt lat="36.175400" lon="-115.146710">
        <ele>616.855</ele>
        <time>2018-12-28T20:37:42Z</time>
      </trkpt>
      <trkpt lat="36.175420" lon="-115.146580">
        <ele>616.795</ele>
        <time>2018-12-28T20:38:02Z</time>
      </trkpt>
      <trkpt lat="36.175440" lon="-115.146440">
        <ele>616.749</ele>
        <time>2018-12-28T20:38:22Z</time>
      </trkpt>
      <trkpt lat="36.175450" lon="-115.146260">
        <ele>616.623</ele>
        <time>2018-12-28T20:38:42Z</time>
      </trkpt>
      <trkpt lat="36.175460" lon="-115.146100">
        <ele>616.608</ele>
        <time>2018-12-28T20:39:02Z</time>
      </trkpt>
      <trkpt lat="36.175470" lon="-115.146040">
        <ele>616.712</ele>
        <time>2018-12-28T20:39:22Z</time>
      </trkpt>
      <trkpt lat="36.175480" lon="-115.145810">
        <ele>616.720</ele>
        <time>2018-12-28T20:39:42Z</time>
      </trkpt>
      <trkpt lat="36.175490" lon="-115.145540">
        <ele>616.765</ele>
        <time>2018-12-28T20:40:02Z</time>
      </trkpt>
      <trkpt lat="36.175490" lon="-115.145260">
        <ele>616.616</ele>
        <time>2018-12-28T20:40:22Z</time>
      </trkpt>
      <trkpt lat="36.175480" lon="-115.145030">
        <ele>616.470</ele>
        <time>2018-12-28T20:40:42Z</time>
      </trkpt>
      <trkpt lat="36.175460" lon="-115.144830">
        <ele>616.399</ele>
        <time>2018-12-28T20:41:02Z</time>
      </trkpt>
      <trkpt lat="36.175450" lon="-115.144730">
        <ele>616.238</ele>
        <time>2018-12-28T20:41:22Z</time>
      </trkpt>
      <trkpt lat="36.175440" lon="-115.144630">
        <ele>616.178</ele>
        <time>2018-12-28T20:41:42Z</time>
      </trkpt>
      <trkpt lat="36.175440" lon="-115.144410">
        <ele>616.062</ele>
        <time>2018-12-28T20:42:02Z</time>
      </trkpt>
      <trkpt lat="36.175400" lon="-115.144170">
        <ele>615.983</ele>
        <time>2018-12-28T20:42:22Z</time>
      </trkpt>
      <trkpt lat="36.175380" lon="-115.144030">
        <ele>615.811</ele>
        <time>2018-12-28T20:42:42Z</time>
      </trkpt>
      <trkpt lat="36.175370" lon="-115.143970">
        <ele>615.808</ele>
        <time>2018-12-28T20:43:02Z</time>
      </trkpt>
      <trkpt lat="36.175350" lon="-115.143900">
        <ele>615.849</ele>
        <time>2018-12-28T20:43:22Z</time>
      </trkpt>
      <trkpt lat="36.175320" lon="-115.143720">
        <ele>615.777</ele>
        <time>2018-12-28T20:43:42Z</time>
      </trkpt>
      <trkpt lat="36.175260" lon="-115.143520">
        <ele>615.752</ele>
        <time>2018-12-28T20:44:02Z</time>
      </trkpt>
      <trkpt lat="36.175200" lon="-115.143270">
        <ele>615.613</ele>
        <time>2018-12-28T20:44:22Z</time>
      </trkpt>
      <trkpt lat="36.175120" lon="-115.143010">
        <ele>615.557</ele>
        <time>2018-12-28T20:44:42Z</time>
      </trkpt>
      <trkpt lat="36.175060" lon="-115.142820">
        <ele>615.436</ele>
        <time>2018-12-28T20:45:02Z</time>
      </trkpt>
      <trkpt lat="36.174990" lon="-115.142640">
        <ele>615.395</ele>
        <time>2018-12-28T20:45:22Z</time>
      </trkpt>
      <trkpt lat="36.174900" lon="-115.142410">
        <ele>615.015</ele>
        <time>2018-12-28T20:45:42Z</time>
      </trkpt>
      <trkpt lat="36.174850" lon="-115.142290">
        <ele>614.943</ele>
        <time>2018-12-28T20:46:02Z</time>
      </trkpt>
      <trkpt lat="36.174800" lon="-115.142160">
        <ele>614.864</ele>
        <time>2018-12-28T20:46:22Z</time>
      </trkpt>
      <trkpt lat="36.174804" lon="-115.142165">
        <ele>614.810</ele>
        <time>2018-12-28T20:46:42Z</time>
      </trkpt>
      <trkpt lat="36.174730" lon="-115.142120">
        <ele>614.808</ele>
        <time>2018-12-28T20:47:02Z</time>
      </trkpt>
      <trkpt lat="36.174710" lon="-115.142110">
        <ele>614.857</ele>
        <time>2018-12-28T20:47:22Z</time>
      </trkpt>
      <trkpt lat="36.174690" lon="-115.142080">
        <ele>614.885</ele>
        <time>2018-12-28T20:47:42Z</time>
      </trkpt>
      <trkpt lat="36.174600" lon="-115.141900">
        <ele>614.740</ele>
        <time>2018-12-28T20:48:02Z</time>
      </trkpt>
      <trkpt lat="36.174460" lon="-115.141610">
        <ele>614.571</ele>
        <time>2018-12-28T20:48:22Z</time>
      </trkpt>
      <trkpt lat="36.174400" lon="-115.141490">
        <ele>614.485</ele>
        <time>2018-12-28T20:48:42Z</time>
      </trkpt>
      <trkpt lat="36.174190" lon="-115.141050">
        <ele>614.124</ele>
        <time>2018-12-28T20:49:02Z</time>
      </trkpt>
      <trkpt lat="36.174120" lon="-115.140880">
        <ele>614.023</ele>
        <time>2018-12-28T20:49:22Z</time>
      </trkpt>
      <trkpt lat="36.174060" lon="-115.140700">
        <ele>613.983</ele>
        <time>2018-12-28T20:49:42Z</time>
      </trkpt>
      <trkpt lat="36.174000" lon="-115.140540">
        <ele>613.846</ele>
        <time>2018-12-28T20:50:02Z</time>
      </trkpt>
      <trkpt lat="36.174000" lon="-115.140520">
        <ele>613.888</ele>
        <time>2018-12-28T20:50:22Z</time>
      </trkpt>
      <trkpt lat="36.173990" lon="-115.140500">
        <ele>613.816</ele>
        <time>2018-12-28T20:50:42Z</time>
      </trkpt>
      <trkpt lat="36.173960" lon="-115.140410">
        <ele>613.708</ele>
        <time>2018-12-28T20:51:02Z</time>
      </trkpt>
      <trkpt lat="36.173910" lon="-115.140220">
        <ele>613.637</ele>
        <time>2018-12-28T20:51:22Z</time>
      </trkpt>
      <trkpt lat="36.173840" lon="-115.139870">
        <ele>613.325</ele>
        <time>2018-12-28T20:51:42Z</time>
      </trkpt>
      <trkpt lat="36.173810" lon="-115.139680">
        <ele>613.220</ele>
        <time>2018-12-28T20:52:02Z</time>
      </trkpt>
      <trkpt lat="36.173790" lon="-115.139510">
        <ele>613.011</ele>
        <time>2018-12-28T20:52:22Z</time>
      </trkpt>
      <trkpt lat="36.173770" lon="-115.139340">
        <ele>612.845</ele>
        <time>2018-12-28T20:52:42Z</time>
      </trkpt>
      <trkpt lat="36.173750" lon="-115.139220">
        <ele>612.674</ele>
        <time>2018-12-28T20:53:02Z</time>
      </trkpt>
      <trkpt lat="36.173740" lon="-115.139140">
        <ele>612.593</ele>
        <time>2018-12-28T20:53:22Z</time>
      </trkpt>
      <trkpt lat="36.173710" lon="-115.139010">
        <ele>612.333</ele>
        <time>2018-12-28T20:53:42Z</time>
      </trkpt>
      <trkpt lat="36.173680" lon="-115.138910">
        <ele>612.139</ele>
        <time>2018-12-28T20:54:02Z</time>
      </trkpt>
      <trkpt lat="36.173670" lon="-115.138870">
        <ele>612.101</ele>
        <time>2018-12-28T20:54:22Z</time>
      </trkpt>
      <trkpt lat="36.173650" lon="-115.138800">
        <ele>612.021</ele>
        <time>2018-12-28T20:54:42Z</time>
      </trkpt>
      <trkpt lat="36.173630" lon="-115.138740">
        <ele>611.908</ele>
        <time>2018-12-28T20:55:02Z</time>
      </trkpt>
      <trkpt lat="36.173631" lon="-115.138742">
        <ele>611.936</ele>
        <time>2018-12-28T20:55:22Z</time>
      </trkpt>
      <trkpt lat="36.173590" lon="-115.138680">
        <ele>611.814</ele>
        <time>2018-12-28T20:55:42Z</time>
      </trkpt>
      <trkpt lat="36.173550" lon="-115.138590">
        <ele>611.759</ele>
        <time>2018-12-28T20:56:02Z</time>
      </trkpt>
      <trkpt lat="36.173530" lon="-115.138550">
        <ele>611.660</ele>
        <time>2018-12-28T20:56:22Z</time>
      </trkpt>
      <trkpt lat="36.173500" lon="-115.138500">
        <ele>611.674</ele>
        <time>2018-12-28T20:56:42Z</time>
      </trkpt>
      <trkpt lat="36.173480" lon="-115.138460">
        <ele>611.523</ele>
        <time>2018-12-28T20:57:02Z</time>
      </trkpt>
      <trkpt lat="36.173450" lon="-115.138420">
        <ele>611.422</ele>
        <time>2018-12-28T20:57:22Z</time>
      </trkpt>
      <trkpt lat="36.173410" lon="-115.138380">
        <ele>611.442</ele>
        <time>2018-12-28T20:57:42Z</time>
      </trkpt>
      <trkpt lat="36.173370" lon="-115.138360">
        <ele>611.398</ele>
        <time>2018-12-28T20:58:02Z</time>
      </trkpt>
      <trkpt lat="36.173340" lon="-115.138340">
        <ele>611.315</ele>
        <time>2018-12-28T20:58:22Z</time>
      </trkpt>
      <trkpt lat="36.173320" lon="-115.138330">
        <ele>611.326</ele>
        <time>2018-12-28T20:58:42Z</time>
      </trkpt>
      <trkpt lat="36.173280" lon="-115.138330">
        <ele>611.308</ele>
        <time>2018-12-28T20:59:02Z</time>
      </trkpt>
      <trkpt lat="36.173240" lon="-115.138320">
        <ele>611.332</ele>
        <time>2018-12-28T20:59:22Z</time>
      </trkpt>
      <trkpt lat="36.173120" lon="-115.138340">
        <ele>611.330</ele>
        <time>2018-12-28T20:59:42Z</time>
      </trkpt>
      <trkpt lat="36.172220" lon="-115.138820">
        <ele>611.665</ele>
        <time>2018-12-28T21:00:02Z</time>
      </trkpt>
      <trkpt lat="36.171580" lon="-115.139180">
        <ele>612.026</ele>
        <time>2018-12-28T21:00:22Z</time>
      </trkpt>
      <trkpt lat="36.171140" lon="-115.139470">
        <ele>612.450</ele>
        <time>2018-12-28T21:00:42Z</time>
      </trkpt>
      <trkpt lat="36.170710" lon="-115.139770">
        <ele>612.769</ele>
        <time>2018-12-28T21:01:02Z</time>
      </trkpt>
      <trkpt lat="36.170600" lon="-115.139850">
        <ele>612.788</ele>
        <time>2018-12-28T21:01:22Z</time>
      </trkpt>
      <trkpt lat="36.170460" lon="-115.139950">
        <ele>612.828</ele>
        <time>2018-12-28T21:01:42Z</time>
      </trkpt>
      <trkpt lat="36.169740" lon="-115.140400">
        <ele>613.199</ele>
        <time>2018-12-28T21:02:02Z</time>
      </trkpt>
      <trkpt lat="36.169260" lon="-115.140720">
        <ele>613.107</ele>
        <time>2018-12-28T21:02:22Z</time>
      </trkpt>
      <trkpt lat="36.169255" lon="-115.140720">
        <ele>613.127</ele>
        <time>2018-12-28T21:02:42Z</time>
      </trkpt>
      <trkpt lat="36.169200" lon="-115.140600">
        <ele>613.008</ele>
        <time>2018-12-28T21:03:02Z</time>
      </trkpt>
      <trkpt lat="36.169370" lon="-115.140490">
        <ele>613.052</ele>
        <time>2018-12-28T21:03:22Z</time>
      </trkpt>
      <trkpt lat="36.169370" lon="-115.140489">
        <ele>613.050</ele>
        <time>2018-12-28T21:03:42Z</time>
      </trkpt>
      <trkpt lat="36.169510" lon="-115.140400">
        <ele>613.075</ele>
        <time>2018-12-28T21:04:02Z</time>
      </trkpt>
      <trkpt lat="36.169650" lon="-115.140310">
        <ele>613.096</ele>
        <time>2018-12-28T21:04:22Z</time>
      </trkpt>
      <trkpt lat="36.169750" lon="-115.140250">
        <ele>613.050</ele>
        <time>2018-12-28T21:04:42Z</time>
      </trkpt>
      <trkpt lat="36.169830" lon="-115.140200">
        <ele>612.979</ele>
        <time>2018-12-28T21:05:02Z</time>
      </trkpt>
      <trkpt lat="36.170040" lon="-115.140060">
        <ele>612.978</ele>
        <time>2018-12-28T21:05:22Z</time>
      </trkpt>
      <trkpt lat="36.170041" lon="-115.140063">
        <ele>612.968</ele>
        <time>2018-12-28T21:05:42Z</time>
      </trkpt>
      <trkpt lat="36.170041" lon="-115.140063">
        <ele>612.956</ele>
        <time>2018-12-27T18:45:02Z</time>
      </trkpt>
      <trkpt lat="36.170400" lon="-115.139830">
        <ele>612.759</ele>
        <time>2018-12-27T18:45:22Z</time>
      </trkpt>
      <trkpt lat="36.171140" lon="-115.139360">
        <ele>612.214</ele>
        <time>2018-12-27T18:45:42Z</time>
      </trkpt>
      <trkpt lat="36.171390" lon="-115.139190">
        <ele>612.008</ele>
        <time>2018-12-27T18:46:02Z</time>
      </trkpt>
      <trkpt lat="36.171540" lon="-115.139090">
        <ele>611.858</ele>
        <time>2018-12-27T18:46:22Z</time>
      </trkpt>
      <trkpt lat="36.171900" lon="-115.138860">
        <ele>611.626</ele>
        <time>2018-12-27T18:46:42Z</time>
      </trkpt>
      <trkpt lat="36.172040" lon="-115.138770">
        <ele>611.511</ele>
        <time>2018-12-27T18:47:02Z</time>
      </trkpt>
      <trkpt lat="36.172310" lon="-115.138600">
        <ele>611.392</ele>
        <time>2018-12-27T18:47:22Z</time>
      </trkpt>
      <trkpt lat="36.172390" lon="-115.138550">
        <ele>611.316</ele>
        <time>2018-12-27T18:47:42Z</time>
      </trkpt>
      <trkpt lat="36.172620" lon="-115.138400">
        <ele>611.290</ele>
        <time>2018-12-27T18:48:02Z</time>
      </trkpt>
      <trkpt lat="36.172700" lon="-115.138350">
        <ele>611.239</ele>
        <time>2018-12-27T18:48:22Z</time>
      </trkpt>
      <trkpt lat="36.173010" lon="-115.138160">
        <ele>611.094</ele>
        <time>2018-12-27T18:48:42Z</time>
      </trkpt>
      <trkpt lat="36.173280" lon="-115.138000">
        <ele>610.875</ele>
        <time>2018-12-27T18:49:02Z</time>
      </trkpt>
      <trkpt lat="36.173560" lon="-115.137830">
        <ele>610.728</ele>
        <time>2018-12-27T18:49:22Z</time>
      </trkpt>
      <trkpt lat="36.173570" lon="-115.137830">
        <ele>610.720</ele>
        <time>2018-12-27T18:49:42Z</time>
      </trkpt>
      <trkpt lat="36.173570" lon="-115.137820">
        <ele>610.708</ele>
        <time>2018-12-27T18:50:02Z</time>
      </trkpt>
      <trkpt lat="36.173690" lon="-115.137750">
        <ele>610.620</ele>
        <time>2018-12-27T18:50:22Z</time>
      </trkpt>
      <trkpt lat="36.173710" lon="-115.137740">
        <ele>610.618</ele>
        <time>2018-12-27T18:50:42Z</time>
      </trkpt>
      <trkpt lat="36.173720" lon="-115.137740">
        <ele>610.683</ele>
        <time>2018-12-27T18:51:02Z</time>
      </trkpt>
      <trkpt lat="36.174010" lon="-115.137560">
        <ele>610.554</ele>
        <time>2018-12-27T18:51:22Z</time>
      </trkpt>
      <trkpt lat="36.174013" lon="-115.137559">
        <ele>610.578</ele>
        <time>2018-12-27T18:51:42Z</time>
      </trkpt>
      <trkpt lat="36.174050" lon="-115.137740">
        <ele>610.712</ele>
        <time>2018-12-27T18:52:02Z</time>
      </trkpt>
      <trkpt lat="36.174080" lon="-115.137830">
        <ele>610.731</ele>
        <time>2018-12-27T18:52:22Z</time>
      </trkpt>
      <trkpt lat="36.174110" lon="-115.137930">
        <ele>610.816</ele>
        <time>2018-12-27T18:52:42Z</time>
      </trkpt>
      <trkpt lat="36.174150" lon="-115.138160">
        <ele>611.199</ele>
        <time>2018-12-27T18:53:02Z</time>
      </trkpt>
      <trkpt lat="36.174160" lon="-115.138310">
        <ele>611.307</ele>
        <time>2018-12-27T18:53:22Z</time>
      </trkpt>
      <trkpt lat="36.174150" lon="-115.138560">
        <ele>611.627</ele>
        <time>2018-12-27T18:53:42Z</time>
      </trkpt>
      <trkpt lat="36.174160" lon="-115.138730">
        <ele>611.808</ele>
        <time>2018-12-27T18:54:02Z</time>
      </trkpt>
      <trkpt lat="36.174160" lon="-115.138950">
        <ele>612.122</ele>
        <time>2018-12-27T18:54:22Z</time>
      </trkpt>
      <trkpt lat="36.174180" lon="-115.139180">
        <ele>612.580</ele>
        <time>2018-12-27T18:54:42Z</time>
      </trkpt>
      <trkpt lat="36.174210" lon="-115.139480">
        <ele>612.925</ele>
        <time>2018-12-27T18:55:02Z</time>
      </trkpt>
      <trkpt lat="36.174240" lon="-115.139710">
        <ele>613.296</ele>
        <time>2018-12-27T18:55:22Z</time>
      </trkpt>
      <trkpt lat="36.174290" lon="-115.139990">
        <ele>613.480</ele>
        <time>2018-12-27T18:55:42Z</time>
      </trkpt>
      <trkpt lat="36.174350" lon="-115.140270">
        <ele>613.664</ele>
        <time>2018-12-27T18:56:02Z</time>
      </trkpt>
      <trkpt lat="36.174420" lon="-115.140500">
        <ele>613.743</ele>
        <time>2018-12-27T18:56:22Z</time>
      </trkpt>
      <trkpt lat="36.174490" lon="-115.140720">
        <ele>613.938</ele>
        <time>2018-12-27T18:56:42Z</time>
      </trkpt>
      <trkpt lat="36.174510" lon="-115.140780">
        <ele>613.924</ele>
        <time>2018-12-27T18:57:02Z</time>
      </trkpt>
      <trkpt lat="36.174740" lon="-115.141430">
        <ele>614.304</ele>
        <time>2018-12-27T18:57:22Z</time>
      </trkpt>
      <trkpt lat="36.174750" lon="-115.141450">
        <ele>614.314</ele>
        <time>2018-12-27T18:57:42Z</time>
      </trkpt>
      <trkpt lat="36.174870" lon="-115.141800">
        <ele>614.508</ele>
        <time>2018-12-27T18:58:02Z</time>
      </trkpt>
      <trkpt lat="36.174880" lon="-115.141840">
        <ele>614.585</ele>
        <time>2018-12-27T18:58:22Z</time>
      </trkpt>
      <trkpt lat="36.174900" lon="-115.141900">
        <ele>614.683</ele>
        <time>2018-12-27T18:58:42Z</time>
      </trkpt>
      <trkpt lat="36.174900" lon="-115.141910">
        <ele>614.618</ele>
        <time>2018-12-27T18:59:02Z</time>
      </trkpt>
      <trkpt lat="36.174900" lon="-115.142060">
        <ele>614.789</ele>
        <time>2018-12-27T18:59:22Z</time>
      </trkpt>
      <trkpt lat="36.174940" lon="-115.142150">
        <ele>614.883</ele>
        <time>2018-12-27T18:59:42Z</time>
      </trkpt>
      <trkpt lat="36.175000" lon="-115.142310">
        <ele>615.067</ele>
        <time>2018-12-27T19:00:02Z</time>
      </trkpt>
      <trkpt lat="36.175130" lon="-115.142650">
        <ele>615.356</ele>
        <time>2018-12-27T19:00:22Z</time>
      </trkpt>
      <trkpt lat="36.175180" lon="-115.142810">
        <ele>615.431</ele>
        <time>2018-12-27T19:00:42Z</time>
      </trkpt>
      <trkpt lat="36.175250" lon="-115.143010">
        <ele>615.543</ele>
        <time>2018-12-27T19:01:02Z</time>
      </trkpt>
      <trkpt lat="36.175330" lon="-115.143250">
        <ele>615.564</ele>
        <time>2018-12-27T19:01:22Z</time>
      </trkpt>
      <trkpt lat="36.175400" lon="-115.143510">
        <ele>615.610</ele>
        <time>2018-12-27T19:01:42Z</time>
      </trkpt>
      <trkpt lat="36.175450" lon="-115.143750">
        <ele>615.608</ele>
        <time>2018-12-27T19:02:02Z</time>
      </trkpt>
      <trkpt lat="36.175470" lon="-115.143830">
        <ele>615.627</ele>
        <time>2018-12-27T19:02:22Z</time>
      </trkpt>
      <trkpt lat="36.175490" lon="-115.143950">
        <ele>615.715</ele>
        <time>2018-12-27T19:02:42Z</time>
      </trkpt>
      <trkpt lat="36.175510" lon="-115.144030">
        <ele>615.880</ele>
        <time>2018-12-27T19:03:02Z</time>
      </trkpt>
      <trkpt lat="36.175560" lon="-115.144320">
        <ele>615.981</ele>
        <time>2018-12-27T19:03:22Z</time>
      </trkpt>
      <trkpt lat="36.175610" lon="-115.144710">
        <ele>616.265</ele>
        <time>2018-12-27T19:03:42Z</time>
      </trkpt>
      <trkpt lat="36.175620" lon="-115.144930">
        <ele>616.499</ele>
        <time>2018-12-27T19:04:02Z</time>
      </trkpt>
      <trkpt lat="36.175630" lon="-115.145090">
        <ele>616.528</ele>
        <time>2018-12-27T19:04:22Z</time>
      </trkpt>
      <trkpt lat="36.175640" lon="-115.145260">
        <ele>616.643</ele>
        <time>2018-12-27T19:04:42Z</time>
      </trkpt>
      <trkpt lat="36.175650" lon="-115.145530">
        <ele>616.864</ele>
        <time>2018-12-27T19:05:02Z</time>
      </trkpt>
      <trkpt lat="36.175650" lon="-115.145690">
        <ele>616.906</ele>
        <time>2018-12-27T19:05:22Z</time>
      </trkpt>
      <trkpt lat="36.175640" lon="-115.145800">
        <ele>616.916</ele>
        <time>2018-12-27T19:05:42Z</time>
      </trkpt>
      <trkpt lat="36.175630" lon="-115.145980">
        <ele>616.908</ele>
        <time>2018-12-27T19:06:02Z</time>
      </trkpt>
      <trkpt lat="36.175630" lon="-115.145990">
        <ele>616.949</ele>
        <time>2018-12-27T19:06:22Z</time>
      </trkpt>
      <trkpt lat="36.175630" lon="-115.146000">
        <ele>616.947</ele>
        <time>2018-12-27T19:06:42Z</time>
      </trkpt>
      <trkpt lat="36.175630" lon="-115.146010">
        <ele>616.932</ele>
        <time>2018-12-27T19:07:02Z</time>
      </trkpt>
      <trkpt lat="36.175610" lon="-115.146230">
        <ele>616.843</ele>
        <time>2018-12-27T19:07:22Z</time>
      </trkpt>
      <trkpt lat="36.175600" lon="-115.146380">
        <ele>616.967</ele>
        <time>2018-12-27T19:07:42Z</time>
      </trkpt>
      <trkpt lat="36.175560" lon="-115.146730">
        <ele>617.031</ele>
        <time>2018-12-27T19:08:02Z</time>
      </trkpt>
      <trkpt lat="36.175510" lon="-115.147040">
        <ele>617.390</ele>
        <time>2018-12-27T19:08:22Z</time>
      </trkpt>
      <trkpt lat="36.175470" lon="-115.147130">
        <ele>617.345</ele>
        <time>2018-12-27T19:08:42Z</time>
      </trkpt>
      <trkpt lat="36.175460" lon="-115.147160">
        <ele>617.365</ele>
        <time>2018-12-27T19:09:02Z</time>
      </trkpt>
      <trkpt lat="36.175410" lon="-115.147400">
        <ele>617.768</ele>
        <time>2018-12-27T19:09:22Z</time>
      </trkpt>
      <trkpt lat="36.175390" lon="-115.147510">
        <ele>618.014</ele>
        <time>2018-12-27T19:09:42Z</time>
      </trkpt>
      <trkpt lat="36.175030" lon="-115.148860">
        <ele>619.608</ele>
        <time>2018-12-27T19:10:02Z</time>
      </trkpt>
      <trkpt lat="36.175020" lon="-115.148930">
        <ele>619.699</ele>
        <time>2018-12-27T19:10:22Z</time>
      </trkpt>
      <trkpt lat="36.174990" lon="-115.149020">
        <ele>619.637</ele>
        <time>2018-12-27T19:10:42Z</time>
      </trkpt>
      <trkpt lat="36.174990" lon="-115.149030">
        <ele>619.682</ele>
        <time>2018-12-27T19:11:02Z</time>
      </trkpt>
      <trkpt lat="36.174990" lon="-115.149060">
        <ele>619.793</ele>
        <time>2018-12-27T19:11:22Z</time>
      </trkpt>
      <trkpt lat="36.174900" lon="-115.149440">
        <ele>619.957</ele>
        <time>2018-12-27T19:11:42Z</time>
      </trkpt>
      <trkpt lat="36.174860" lon="-115.149580">
        <ele>620.011</ele>
        <time>2018-12-27T19:12:02Z</time>
      </trkpt>
      <trkpt lat="36.174820" lon="-115.149710">
        <ele>620.090</ele>
        <time>2018-12-27T19:12:22Z</time>
      </trkpt>
      <trkpt lat="36.174821" lon="-115.149710">
        <ele>620.095</ele>
        <time>2018-12-27T19:12:42Z</time>
      </trkpt>
      <trkpt lat="36.174820" lon="-115.149870">
        <ele>620.162</ele>
        <time>2018-12-27T19:13:02Z</time>
      </trkpt>
      <trkpt lat="36.174820" lon="-115.149900">
        <ele>620.183</ele>
        <time>2018-12-27T19:13:22Z</time>
      </trkpt>
      <trkpt lat="36.174810" lon="-115.149950">
        <ele>620.211</ele>
        <time>2018-12-27T19:13:42Z</time>
      </trkpt>
      <trkpt lat="36.174710" lon="-115.150370">
        <ele>620.508</ele>
        <time>2018-12-27T19:14:02Z</time>
      </trkpt>
      <trkpt lat="36.174630" lon="-115.150730">
        <ele>620.789</ele>
        <time>2018-12-27T19:14:22Z</time>
      </trkpt>
      <trkpt lat="36.174550" lon="-115.151080">
        <ele>620.997</ele>
        <time>2018-12-27T19:14:42Z</time>
      </trkpt>
      <trkpt lat="36.174480" lon="-115.151510">
        <ele>621.272</ele>
        <time>2018-12-27T19:15:02Z</time>
      </trkpt>
      <trkpt lat="36.174450" lon="-115.151630">
        <ele>621.363</ele>
        <time>2018-12-27T19:15:22Z</time>
      </trkpt>
      <trkpt lat="36.174400" lon="-115.151870">
        <ele>621.447</ele>
        <time>2018-12-27T19:15:42Z</time>
      </trkpt>
      <trkpt lat="36.174370" lon="-115.152060">
        <ele>621.621</ele>
        <time>2018-12-27T19:16:02Z</time>
      </trkpt>
      <trkpt lat="36.174360" lon="-115.152130">
        <ele>621.680</ele>
        <time>2018-12-27T19:16:22Z</time>
      </trkpt>
      <trkpt lat="36.174350" lon="-115.152240">
        <ele>621.765</ele>
        <time>2018-12-27T19:16:42Z</time>
      </trkpt>
      <trkpt lat="36.174340" lon="-115.152330">
        <ele>621.874</ele>
        <time>2018-12-27T19:17:02Z</time>
      </trkpt>
      <trkpt lat="36.174330" lon="-115.152410">
        <ele>621.856</ele>
        <time>2018-12-27T19:17:22Z</time>
      </trkpt>
      <trkpt lat="36.174330" lon="-115.152540">
        <ele>621.921</ele>
        <time>2018-12-27T19:17:42Z</time>
      </trkpt>
      <trkpt lat="36.174330" lon="-115.152640">
        <ele>621.908</ele>
        <time>2018-12-27T19:18:02Z</time>
      </trkpt>
      <trkpt lat="36.174340" lon="-115.152700">
        <ele>622.010</ele>
        <time>2018-12-27T19:18:22Z</time>
      </trkpt>
      <trkpt lat="36.174350" lon="-115.152740">
        <ele>622.068</ele>
        <time>2018-12-27T19:18:42Z</time>
      </trkpt>
      <trkpt lat="36.174350" lon="-115.152780">
        <ele>622.073</ele>
        <time>2018-12-27T19:19:02Z</time>
      </trkpt>
      <trkpt lat="36.174370" lon="-115.152870">
        <ele>622.074</ele>
        <time>2018-12-27T19:19:22Z</time>
      </trkpt>
      <trkpt lat="36.174400" lon="-115.152930">
        <ele>622.078</ele>
        <time>2018-12-27T19:19:42Z</time>
      </trkpt>
      <trkpt lat="36.174420" lon="-115.152980">
        <ele>622.112</ele>
        <time>2018-12-27T19:20:02Z</time>
      </trkpt>
      <trkpt lat="36.174440" lon="-115.153020">
        <ele>622.191</ele>
        <time>2018-12-27T19:20:22Z</time>
      </trkpt>
      <trkpt lat="36.174500" lon="-115.153110">
        <ele>622.176</ele>
        <time>2018-12-27T19:20:42Z</time>
      </trkpt>
      <trkpt lat="36.174550" lon="-115.153180">
        <ele>622.139</ele>
        <time>2018-12-27T19:21:02Z</time>
      </trkpt>
      <trkpt lat="36.174580" lon="-115.153220">
        <ele>622.101</ele>
        <time>2018-12-27T19:21:22Z</time>
      </trkpt>
      <trkpt lat="36.174610" lon="-115.153240">
        <ele>622.121</ele>
        <time>2018-12-27T19:21:42Z</time>
      </trkpt>
      <trkpt lat="36.174650" lon="-115.153280">
        <ele>622.008</ele>
        <time>2018-12-27T19:22:02Z</time>
      </trkpt>
      <trkpt lat="36.174710" lon="-115.153320">
        <ele>622.026</ele>
        <time>2018-12-27T19:22:22Z</time>
      </trkpt>
      <trkpt lat="36.174750" lon="-115.153340">
        <ele>622.034</ele>
        <time>2018-12-27T19:22:42Z</time>
      </trkpt>
      <trkpt lat="36.174800" lon="-115.153360">
        <ele>622.029</ele>
        <time>2018-12-27T19:23:02Z</time>
      </trkpt>
      <trkpt lat="36.174860" lon="-115.153380">
        <ele>622.080</ele>
        <time>2018-12-27T19:23:22Z</time>
      </trkpt>
      <trkpt lat="36.174920" lon="-115.153400">
        <ele>622.084</ele>
        <time>2018-12-27T19:23:42Z</time>
      </trkpt>
      <trkpt lat="36.174970" lon="-115.153410">
        <ele>622.098</ele>
        <time>2018-12-27T19:24:02Z</time>
      </trkpt>
      <trkpt lat="36.174990" lon="-115.153410">
        <ele>622.047</ele>
        <time>2018-12-27T19:24:22Z</time>
      </trkpt>
      <trkpt lat="36.175050" lon="-115.153410">
        <ele>621.932</ele>
        <time>2018-12-27T19:24:42Z</time>
      </trkpt>
      <trkpt lat="36.175100" lon="-115.153400">
        <ele>621.912</ele>
        <time>2018-12-27T19:25:02Z</time>
      </trkpt>
      <trkpt lat="36.175150" lon="-115.153390">
        <ele>621.932</ele>
        <time>2018-12-27T19:25:22Z</time>
      </trkpt>
      <trkpt lat="36.175190" lon="-115.153380">
        <ele>621.905</ele>
        <time>2018-12-27T19:25:42Z</time>
      </trkpt>
      <trkpt lat="36.175230" lon="-115.153360">
        <ele>621.908</ele>
        <time>2018-12-27T19:26:02Z</time>
      </trkpt>
      <trkpt lat="36.175300" lon="-115.153320">
        <ele>621.984</ele>
        <time>2018-12-27T19:26:22Z</time>
      </trkpt>
      <trkpt lat="36.175360" lon="-115.153270">
        <ele>621.992</ele>
        <time>2018-12-27T19:26:42Z</time>
      </trkpt>
      <trkpt lat="36.175470" lon="-115.153160">
        <ele>621.847</ele>
        <time>2018-12-27T19:27:02Z</time>
      </trkpt>
      <trkpt lat="36.175550" lon="-115.153050">
        <ele>621.828</ele>
        <time>2018-12-27T19:27:22Z</time>
      </trkpt>
      <trkpt lat="36.175800" lon="-115.152710">
        <ele>621.762</ele>
        <time>2018-12-27T19:27:42Z</time>
      </trkpt>
      <trkpt lat="36.175990" lon="-115.152450">
        <ele>621.776</ele>
        <time>2018-12-27T19:28:02Z</time>
      </trkpt>
      <trkpt lat="36.176230" lon="-115.152130">
        <ele>621.785</ele>
        <time>2018-12-27T19:28:22Z</time>
      </trkpt>
      <trkpt lat="36.176480" lon="-115.151790">
        <ele>621.690</ele>
        <time>2018-12-27T19:28:42Z</time>
      </trkpt>
      <trkpt lat="36.176650" lon="-115.151550">
        <ele>621.436</ele>
        <time>2018-12-27T19:29:02Z</time>
      </trkpt>
      <trkpt lat="36.176770" lon="-115.151360">
        <ele>621.217</ele>
        <time>2018-12-27T19:29:22Z</time>
      </trkpt>
      <trkpt lat="36.176880" lon="-115.151190">
        <ele>621.118</ele>
        <time>2018-12-27T19:29:42Z</time>
      </trkpt>
      <trkpt lat="36.177020" lon="-115.150950">
        <ele>620.908</ele>
        <time>2018-12-27T19:30:02Z</time>
      </trkpt>
      <trkpt lat="36.177200" lon="-115.150640">
        <ele>620.796</ele>
        <time>2018-12-27T19:30:22Z</time>
      </trkpt>
      <trkpt lat="36.177230" lon="-115.150600">
        <ele>620.684</ele>
        <time>2018-12-27T19:30:42Z</time>
      </trkpt>
      <trkpt lat="36.177310" lon="-115.150450">
        <ele>620.529</ele>
        <time>2018-12-27T19:31:02Z</time>
      </trkpt>
      <trkpt lat="36.177460" lon="-115.150210">
        <ele>620.370</ele>
        <time>2018-12-27T19:31:22Z</time>
      </trkpt>
      <trkpt lat="36.177640" lon="-115.149880">
        <ele>620.184</ele>
        <time>2018-12-27T19:31:42Z</time>
      </trkpt>
      <trkpt lat="36.177730" lon="-115.149710">
        <ele>619.958</ele>
        <time>2018-12-27T19:32:02Z</time>
      </trkpt>
      <trkpt lat="36.177790" lon="-115.149570">
        <ele>619.887</ele>
        <time>2018-12-27T19:32:22Z</time>
      </trkpt>
      <trkpt lat="36.177880" lon="-115.149370">
        <ele>619.742</ele>
        <time>2018-12-27T19:32:42Z</time>
      </trkpt>
      <trkpt lat="36.177960" lon="-115.149180">
        <ele>619.696</ele>
        <time>2018-12-27T19:33:02Z</time>
      </trkpt>
      <trkpt lat="36.178170" lon="-115.148710">
        <ele>619.331</ele>
        <time>2018-12-27T19:33:22Z</time>
      </trkpt>
      <trkpt lat="36.178370" lon="-115.148300">
        <ele>619.224</ele>
        <time>2018-12-27T19:33:42Z</time>
      </trkpt>
      <trkpt lat="36.178390" lon="-115.148260">
        <ele>619.208</ele>
        <time>2018-12-27T19:34:02Z</time>
      </trkpt>
      <trkpt lat="36.178400" lon="-115.148250">
        <ele>619.242</ele>
        <time>2018-12-27T19:34:22Z</time>
      </trkpt>
      <trkpt lat="36.178440" lon="-115.148160">
        <ele>619.120</ele>
        <time>2018-12-27T19:34:42Z</time>
      </trkpt>
      <trkpt lat="36.178750" lon="-115.147490">
        <ele>618.485</ele>
        <time>2018-12-27T19:35:02Z</time>
      </trkpt>
      <trkpt lat="36.178900" lon="-115.147190">
        <ele>618.216</ele>
        <time>2018-12-27T19:35:22Z</time>
      </trkpt>
      <trkpt lat="36.178900" lon="-115.147180">
        <ele>618.110</ele>
        <time>2018-12-27T19:35:42Z</time>
      </trkpt>
      <trkpt lat="36.178910" lon="-115.147170">
        <ele>618.164</ele>
        <time>2018-12-27T19:36:02Z</time>
      </trkpt>
      <trkpt lat="36.179010" lon="-115.146990">
        <ele>617.983</ele>
        <time>2018-12-27T19:36:22Z</time>
      </trkpt>
      <trkpt lat="36.179040" lon="-115.146940">
        <ele>617.848</ele>
        <time>2018-12-27T19:36:42Z</time>
      </trkpt>
      <trkpt lat="36.179090" lon="-115.146870">
        <ele>617.725</ele>
        <time>2018-12-27T19:37:02Z</time>
      </trkpt>
      <trkpt lat="36.179120" lon="-115.146810">
        <ele>617.626</ele>
        <time>2018-12-27T19:37:22Z</time>
      </trkpt>
      <trkpt lat="36.179140" lon="-115.146790">
        <ele>617.608</ele>
        <time>2018-12-27T19:37:42Z</time>
      </trkpt>
      <trkpt lat="36.179230" lon="-115.146650">
        <ele>617.308</ele>
        <time>2018-12-27T19:38:02Z</time>
      </trkpt>
      <trkpt lat="36.179360" lon="-115.146490">
        <ele>617.135</ele>
        <time>2018-12-27T19:38:22Z</time>
      </trkpt>
      <trkpt lat="36.179800" lon="-115.145980">
        <ele>616.493</ele>
        <time>2018-12-27T19:38:42Z</time>
      </trkpt>
      <trkpt lat="36.180130" lon="-115.145610">
        <ele>615.648</ele>
        <time>2018-12-27T19:39:02Z</time>
      </trkpt>
      <trkpt lat="36.180510" lon="-115.145210">
        <ele>614.789</ele>
        <time>2018-12-27T19:39:22Z</time>
      </trkpt>
      <trkpt lat="36.180640" lon="-115.145080">
        <ele>614.423</ele>
        <time>2018-12-27T19:39:42Z</time>
      </trkpt>
      <trkpt lat="36.180790" lon="-115.144910">
        <ele>614.127</ele>
        <time>2018-12-27T19:40:02Z</time>
      </trkpt>
      <trkpt lat="36.180880" lon="-115.144830">
        <ele>613.936</ele>
        <time>2018-12-27T19:40:22Z</time>
      </trkpt>
      <trkpt lat="36.180940" lon="-115.144770">
        <ele>613.881</ele>
        <time>2018-12-27T19:40:42Z</time>
      </trkpt>
      <trkpt lat="36.181010" lon="-115.144720">
        <ele>613.855</ele>
        <time>2018-12-27T19:41:02Z</time>
      </trkpt>
      <trkpt lat="36.181120" lon="-115.144620">
        <ele>613.707</ele>
        <time>2018-12-27T19:41:22Z</time>
      </trkpt>
      <trkpt lat="36.181200" lon="-115.144580">
        <ele>613.817</ele>
        <time>2018-12-27T19:41:42Z</time>
      </trkpt>
      <trkpt lat="36.181660" lon="-115.144290">
        <ele>613.808</ele>
        <time>2018-12-27T19:42:02Z</time>
      </trkpt>
      <trkpt lat="36.181850" lon="-115.144180">
        <ele>613.518</ele>
        <time>2018-12-27T19:42:22Z</time>
      </trkpt>
      <trkpt lat="36.181870" lon="-115.144170">
        <ele>613.516</ele>
        <time>2018-12-27T19:42:42Z</time>
      </trkpt>
      <trkpt lat="36.181890" lon="-115.144160">
        <ele>613.571</ele>
        <time>2018-12-27T19:43:02Z</time>
      </trkpt>
      <trkpt lat="36.181920" lon="-115.144150">
        <ele>613.542</ele>
        <time>2018-12-27T19:43:22Z</time>
      </trkpt>
      <trkpt lat="36.181940" lon="-115.144150">
        <ele>613.536</ele>
        <time>2018-12-27T19:43:42Z</time>
      </trkpt>
      <trkpt lat="36.181970" lon="-115.144140">
        <ele>613.540</ele>
        <time>2018-12-27T19:44:02Z</time>
      </trkpt>
      <trkpt lat="36.182000" lon="-115.144150">
        <ele>613.589</ele>
        <time>2018-12-27T19:44:22Z</time>
      </trkpt>
      <trkpt lat="36.182070" lon="-115.144170">
        <ele>613.524</ele>
        <time>2018-12-27T19:44:42Z</time>
      </trkpt>
      <trkpt lat="36.182300" lon="-115.144050">
        <ele>613.628</ele>
        <time>2018-12-27T19:45:02Z</time>
      </trkpt>
      <trkpt lat="36.182390" lon="-115.144000">
        <ele>613.689</ele>
        <time>2018-12-27T19:45:22Z</time>
      </trkpt>
      <trkpt lat="36.182470" lon="-115.143970">
        <ele>613.517</ele>
        <time>2018-12-27T19:45:42Z</time>
      </trkpt>
      <trkpt lat="36.182740" lon="-115.143860">
        <ele>613.208</ele>
        <time>2018-12-27T19:46:02Z</time>
      </trkpt>
      <trkpt lat="36.182980" lon="-115.143780">
        <ele>613.165</ele>
        <time>2018-12-27T19:46:22Z</time>
      </trkpt>
      <trkpt lat="36.183080" lon="-115.143750">
        <ele>613.083</ele>
        <time>2018-12-27T19:46:42Z</time>
      </trkpt>
      <trkpt lat="36.183330" lon="-115.143690">
        <ele>613.078</ele>
        <time>2018-12-27T19:47:02Z</time>
      </trkpt>
      <trkpt lat="36.183530" lon="-115.143640">
        <ele>612.999</ele>
        <time>2018-12-27T19:47:22Z</time>
      </trkpt>
      <trkpt lat="36.183890" lon="-115.143590">
        <ele>612.763</ele>
        <time>2018-12-27T19:47:42Z</time>
      </trkpt>
      <trkpt lat="36.184180" lon="-115.143560">
        <ele>612.527</ele>
        <time>2018-12-27T19:48:02Z</time>
      </trkpt>
      <trkpt lat="36.184410" lon="-115.143550">
        <ele>612.396</ele>
        <time>2018-12-27T19:48:22Z</time>
      </trkpt>
      <trkpt lat="36.184810" lon="-115.143550">
        <ele>611.931</ele>
        <time>2018-12-27T19:48:42Z</time>
      </trkpt>
      <trkpt lat="36.185940" lon="-115.143540">
        <ele>610.681</ele>
        <time>2018-12-27T19:49:02Z</time>
      </trkpt>
      <trkpt lat="36.186280" lon="-115.143540">
        <ele>610.561</ele>
        <time>2018-12-27T19:49:22Z</time>
      </trkpt>
      <trkpt lat="36.186530" lon="-115.143530">
        <ele>610.417</ele>
        <time>2018-12-27T19:49:42Z</time>
      </trkpt>
      <trkpt lat="36.186840" lon="-115.143510">
        <ele>610.208</ele>
        <time>2018-12-27T19:50:02Z</time>
      </trkpt>
      <trkpt lat="36.187190" lon="-115.143450">
        <ele>609.931</ele>
        <time>2018-12-27T19:50:22Z</time>
      </trkpt>
      <trkpt lat="36.187360" lon="-115.143410">
        <ele>610.199</ele>
        <time>2018-12-27T19:50:42Z</time>
      </trkpt>
      <trkpt lat="36.187770" lon="-115.143320">
        <ele>609.594</ele>
        <time>2018-12-27T19:51:02Z</time>
      </trkpt>
      <trkpt lat="36.188050" lon="-115.143240">
        <ele>608.795</ele>
        <time>2018-12-27T19:51:22Z</time>
      </trkpt>
      <trkpt lat="36.188330" lon="-115.143140">
        <ele>608.019</ele>
        <time>2018-12-27T19:51:42Z</time>
      </trkpt>
      <trkpt lat="36.188410" lon="-115.143120">
        <ele>607.963</ele>
        <time>2018-12-27T19:52:02Z</time>
      </trkpt>
      <trkpt lat="36.188480" lon="-115.143090">
        <ele>607.892</ele>
        <time>2018-12-27T19:52:22Z</time>
      </trkpt>
      <trkpt lat="36.188790" lon="-115.142970">
        <ele>607.317</ele>
        <time>2018-12-27T19:52:42Z</time>
      </trkpt>
      <trkpt lat="36.189110" lon="-115.142820">
        <ele>606.519</ele>
        <time>2018-12-27T19:53:02Z</time>
      </trkpt>
      <trkpt lat="36.189400" lon="-115.142670">
        <ele>606.009</ele>
        <time>2018-12-27T19:53:22Z</time>
      </trkpt>
      <trkpt lat="36.189670" lon="-115.142510">
        <ele>605.319</ele>
        <time>2018-12-27T19:53:42Z</time>
      </trkpt>
      <trkpt lat="36.189920" lon="-115.142350">
        <ele>604.608</ele>
        <time>2018-12-27T19:54:02Z</time>
      </trkpt>
      <trkpt lat="36.190210" lon="-115.142150">
        <ele>603.824</ele>
        <time>2018-12-27T19:54:22Z</time>
      </trkpt>
      <trkpt lat="36.190430" lon="-115.141980">
        <ele>603.222</ele>
        <time>2018-12-27T19:54:42Z</time>
      </trkpt>
      <trkpt lat="36.191140" lon="-115.141410">
        <ele>600.747</ele>
        <time>2018-12-27T19:55:02Z</time>
      </trkpt>
      <trkpt lat="36.192420" lon="-115.140330">
        <ele>591.648</ele>
        <time>2018-12-27T19:55:22Z</time>
      </trkpt>
      <trkpt lat="36.193160" lon="-115.139850">
        <ele>590.242</ele>
        <time>2018-12-27T19:55:42Z</time>
      </trkpt>
      <trkpt lat="36.193330" lon="-115.139740">
        <ele>589.346</ele>
        <time>2018-12-27T19:56:02Z</time>
      </trkpt>
      <trkpt lat="36.193640" lon="-115.139570">
        <ele>588.015</ele>
        <time>2018-12-27T19:56:22Z</time>
      </trkpt>
      <trkpt lat="36.193940" lon="-115.139420">
        <ele>586.960</ele>
        <time>2018-12-27T19:56:42Z</time>
      </trkpt>
      <trkpt lat="36.194210" lon="-115.139290">
        <ele>586.046</ele>
        <time>2018-12-27T19:57:02Z</time>
      </trkpt>
      <trkpt lat="36.194800" lon="-115.139030">
        <ele>588.088</ele>
        <time>2018-12-27T19:57:22Z</time>
      </trkpt>
      <trkpt lat="36.194980" lon="-115.138950">
        <ele>587.916</ele>
        <time>2018-12-27T19:57:42Z</time>
      </trkpt>
      <trkpt lat="36.195370" lon="-115.138770">
        <ele>586.108</ele>
        <time>2018-12-27T19:58:02Z</time>
      </trkpt>
      <trkpt lat="36.195750" lon="-115.138590">
        <ele>585.987</ele>
        <time>2018-12-27T19:58:22Z</time>
      </trkpt>
      <trkpt lat="36.195760" lon="-115.138590">
        <ele>585.925</ele>
        <time>2018-12-27T19:58:42Z</time>
      </trkpt>
      <trkpt lat="36.195930" lon="-115.138510">
        <ele>585.770</ele>
        <time>2018-12-27T19:59:02Z</time>
      </trkpt>
      <trkpt lat="36.196050" lon="-115.138460">
        <ele>585.731</ele>
        <time>2018-12-27T19:59:22Z</time>
      </trkpt>
      <trkpt lat="36.196120" lon="-115.138430">
        <ele>585.725</ele>
        <time>2018-12-27T19:59:42Z</time>
      </trkpt>
      <trkpt lat="36.196450" lon="-115.138280">
        <ele>585.749</ele>
        <time>2018-12-27T20:00:02Z</time>
      </trkpt>
      <trkpt lat="36.196980" lon="-115.138050">
        <ele>586.238</ele>
        <time>2018-12-27T20:00:22Z</time>
      </trkpt>
      <trkpt lat="36.197230" lon="-115.137940">
        <ele>586.323</ele>
        <time>2018-12-27T20:00:42Z</time>
      </trkpt>
      <trkpt lat="36.197450" lon="-115.137840">
        <ele>586.277</ele>
        <time>2018-12-27T20:01:02Z</time>
      </trkpt>
      <trkpt lat="36.198190" lon="-115.137510">
        <ele>586.961</ele>
        <time>2018-12-27T20:01:22Z</time>
      </trkpt>
      <trkpt lat="36.198670" lon="-115.137300">
        <ele>587.127</ele>
        <time>2018-12-27T20:01:42Z</time>
      </trkpt>
      <trkpt lat="36.199100" lon="-115.137110">
        <ele>587.208</ele>
        <time>2018-12-27T20:02:02Z</time>
      </trkpt>
      <trkpt lat="36.199230" lon="-115.137060">
        <ele>587.130</ele>
        <time>2018-12-27T20:02:22Z</time>
      </trkpt>
      <trkpt lat="36.199400" lon="-115.136970">
        <ele>587.148</ele>
        <time>2018-12-27T20:02:42Z</time>
      </trkpt>
      <trkpt lat="36.199560" lon="-115.136900">
        <ele>587.133</ele>
        <time>2018-12-27T20:03:02Z</time>
      </trkpt>
      <trkpt lat="36.199760" lon="-115.136800">
        <ele>587.194</ele>
        <time>2018-12-27T20:03:22Z</time>
      </trkpt>
      <trkpt lat="36.199930" lon="-115.136710">
        <ele>587.058</ele>
        <time>2018-12-27T20:03:42Z</time>
      </trkpt>
      <trkpt lat="36.200150" lon="-115.136590">
        <ele>587.052</ele>
        <time>2018-12-27T20:04:02Z</time>
      </trkpt>
      <trkpt lat="36.200450" lon="-115.136420">
        <ele>586.921</ele>
        <time>2018-12-27T20:04:22Z</time>
      </trkpt>
      <trkpt lat="36.200840" lon="-115.136180">
        <ele>586.896</ele>
        <time>2018-12-27T20:04:42Z</time>
      </trkpt>
      <trkpt lat="36.201130" lon="-115.136000">
        <ele>586.767</ele>
        <time>2018-12-27T20:05:02Z</time>
      </trkpt>
      <trkpt lat="36.201260" lon="-115.135910">
        <ele>586.681</ele>
        <time>2018-12-27T20:05:22Z</time>
      </trkpt>
      <trkpt lat="36.201430" lon="-115.135800">
        <ele>586.419</ele>
        <time>2018-12-27T20:05:42Z</time>
      </trkpt>
      <trkpt lat="36.201610" lon="-115.135670">
        <ele>586.108</ele>
        <time>2018-12-27T20:06:02Z</time>
      </trkpt>
      <trkpt lat="36.202220" lon="-115.135230">
        <ele>586.339</ele>
        <time>2018-12-27T20:06:22Z</time>
      </trkpt>
      <trkpt lat="36.203370" lon="-115.134380">
        <ele>585.047</ele>
        <time>2018-12-27T20:06:42Z</time>
      </trkpt>
      <trkpt lat="36.203450" lon="-115.134320">
        <ele>584.982</ele>
        <time>2018-12-27T20:07:02Z</time>
      </trkpt>
      <trkpt lat="36.203460" lon="-115.134320">
        <ele>584.993</ele>
        <time>2018-12-27T20:07:22Z</time>
      </trkpt>
      <trkpt lat="36.204200" lon="-115.133770">
        <ele>583.647</ele>
        <time>2018-12-27T20:07:42Z</time>
      </trkpt>
      <trkpt lat="36.207330" lon="-115.131500">
        <ele>582.441</ele>
        <time>2018-12-27T20:08:02Z</time>
      </trkpt>
      <trkpt lat="36.210230" lon="-115.129350">
        <ele>583.220</ele>
        <time>2018-12-27T20:08:22Z</time>
      </trkpt>
      <trkpt lat="36.210330" lon="-115.129280">
        <ele>583.365</ele>
        <time>2018-12-27T20:08:42Z</time>
      </trkpt>
      <trkpt lat="36.212390" lon="-115.127770">
        <ele>582.877</ele>
        <time>2018-12-27T20:09:02Z</time>
      </trkpt>
      <trkpt lat="36.213050" lon="-115.127310">
        <ele>583.161</ele>
        <time>2018-12-27T20:09:22Z</time>
      </trkpt>
      <trkpt lat="36.213470" lon="-115.127000">
        <ele>583.327</ele>
        <time>2018-12-27T20:09:42Z</time>
      </trkpt>
      <trkpt lat="36.214560" lon="-115.126200">
        <ele>585.708</ele>
        <time>2018-12-27T20:10:02Z</time>
      </trkpt>
      <trkpt lat="36.215180" lon="-115.125720">
        <ele>587.680</ele>
        <time>2018-12-27T20:10:22Z</time>
      </trkpt>
      <trkpt lat="36.215470" lon="-115.125500">
        <ele>587.468</ele>
        <time>2018-12-27T20:10:42Z</time>
      </trkpt>
      <trkpt lat="36.215860" lon="-115.125210">
        <ele>587.653</ele>
        <time>2018-12-27T20:11:02Z</time>
      </trkpt>
      <trkpt lat="36.216320" lon="-115.124870">
        <ele>586.754</ele>
        <time>2018-12-27T20:11:22Z</time>
      </trkpt>
      <trkpt lat="36.216590" lon="-115.124670">
        <ele>586.018</ele>
        <time>2018-12-27T20:11:42Z</time>
      </trkpt>
      <trkpt lat="36.217150" lon="-115.124270">
        <ele>584.152</ele>
        <time>2018-12-27T20:12:02Z</time>
      </trkpt>
      <trkpt lat="36.217340" lon="-115.124130">
        <ele>583.441</ele>
        <time>2018-12-27T20:12:22Z</time>
      </trkpt>
      <trkpt lat="36.217560" lon="-115.123980">
        <ele>582.956</ele>
        <time>2018-12-27T20:12:42Z</time>
      </trkpt>
      <trkpt lat="36.217570" lon="-115.123970">
        <ele>582.977</ele>
        <time>2018-12-27T20:13:02Z</time>
      </trkpt>
      <trkpt lat="36.217580" lon="-115.123960">
        <ele>582.861</ele>
        <time>2018-12-27T20:13:22Z</time>
      </trkpt>
      <trkpt lat="36.217590" lon="-115.123960">
        <ele>582.827</ele>
        <time>2018-12-27T20:13:42Z</time>
      </trkpt>
      <trkpt lat="36.217740" lon="-115.123840">
        <ele>582.608</ele>
        <time>2018-12-27T20:14:02Z</time>
      </trkpt>
      <trkpt lat="36.217780" lon="-115.123810">
        <ele>582.510</ele>
        <time>2018-12-27T20:14:22Z</time>
      </trkpt>
      <trkpt lat="36.217800" lon="-115.123800">
        <ele>582.598</ele>
        <time>2018-12-27T20:14:42Z</time>
      </trkpt>
      <trkpt lat="36.218100" lon="-115.123570">
        <ele>582.283</ele>
        <time>2018-12-27T20:15:02Z</time>
      </trkpt>
      <trkpt lat="36.219050" lon="-115.122880">
        <ele>581.664</ele>
        <time>2018-12-27T20:15:22Z</time>
      </trkpt>
      <trkpt lat="36.219610" lon="-115.122470">
        <ele>581.118</ele>
        <time>2018-12-27T20:15:42Z</time>
      </trkpt>
      <trkpt lat="36.220200" lon="-115.122040">
        <ele>580.912</ele>
        <time>2018-12-27T20:16:02Z</time>
      </trkpt>
      <trkpt lat="36.220750" lon="-115.121630">
        <ele>581.611</ele>
        <time>2018-12-27T20:16:22Z</time>
      </trkpt>
      <trkpt lat="36.221320" lon="-115.121220">
        <ele>580.566</ele>
        <time>2018-12-27T20:16:42Z</time>
      </trkpt>
      <trkpt lat="36.221480" lon="-115.121090">
        <ele>580.168</ele>
        <time>2018-12-27T20:17:02Z</time>
      </trkpt>
      <trkpt lat="36.222550" lon="-115.120320">
        <ele>579.942</ele>
        <time>2018-12-27T20:17:22Z</time>
      </trkpt>
      <trkpt lat="36.223220" lon="-115.119820">
        <ele>579.526</ele>
        <time>2018-12-27T20:17:42Z</time>
      </trkpt>
      <trkpt lat="36.223450" lon="-115.119660">
        <ele>579.308</ele>
        <time>2018-12-27T20:18:02Z</time>
      </trkpt>
      <trkpt lat="36.224040" lon="-115.119230">
        <ele>578.979</ele>
        <time>2018-12-27T20:18:22Z</time>
      </trkpt>
      <trkpt lat="36.224540" lon="-115.118860">
        <ele>578.087</ele>
        <time>2018-12-27T20:18:42Z</time>
      </trkpt>
      <trkpt lat="36.225000" lon="-115.118520">
        <ele>576.892</ele>
        <time>2018-12-27T20:19:02Z</time>
      </trkpt>
      <trkpt lat="36.225630" lon="-115.118060">
        <ele>578.163</ele>
        <time>2018-12-27T20:19:22Z</time>
      </trkpt>
      <trkpt lat="36.226100" lon="-115.117720">
        <ele>579.387</ele>
        <time>2018-12-27T20:19:42Z</time>
      </trkpt>
      <trkpt lat="36.227130" lon="-115.116950">
        <ele>579.651</ele>
        <time>2018-12-27T20:20:02Z</time>
      </trkpt>
      <trkpt lat="36.227520" lon="-115.116650">
        <ele>579.340</ele>
        <time>2018-12-27T20:20:22Z</time>
      </trkpt>
      <trkpt lat="36.227950" lon="-115.116290">
        <ele>579.175</ele>
        <time>2018-12-27T20:20:42Z</time>
      </trkpt>
      <trkpt lat="36.228510" lon="-115.115800">
        <ele>579.136</ele>
        <time>2018-12-27T20:21:02Z</time>
      </trkpt>
      <trkpt lat="36.228690" lon="-115.115620">
        <ele>579.117</ele>
        <time>2018-12-27T20:21:22Z</time>
      </trkpt>
      <trkpt lat="36.229100" lon="-115.115210">
        <ele>579.318</ele>
        <time>2018-12-27T20:21:42Z</time>
      </trkpt>
      <trkpt lat="36.229410" lon="-115.114870">
        <ele>579.708</ele>
        <time>2018-12-27T20:22:02Z</time>
      </trkpt>
      <trkpt lat="36.229750" lon="-115.114490">
        <ele>579.636</ele>
        <time>2018-12-27T20:22:22Z</time>
      </trkpt>
      <trkpt lat="36.230360" lon="-115.113750">
        <ele>579.274</ele>
        <time>2018-12-27T20:22:42Z</time>
      </trkpt>
      <trkpt lat="36.230630" lon="-115.113430">
        <ele>579.599</ele>
        <time>2018-12-27T20:23:02Z</time>
      </trkpt>
      <trkpt lat="36.231490" lon="-115.112370">
        <ele>579.850</ele>
        <time>2018-12-27T20:23:22Z</time>
      </trkpt>
      <trkpt lat="36.232290" lon="-115.111400">
        <ele>580.264</ele>
        <time>2018-12-27T20:23:42Z</time>
      </trkpt>
      <trkpt lat="36.232640" lon="-115.110960">
        <ele>580.578</ele>
        <time>2018-12-27T20:24:02Z</time>
      </trkpt>
      <trkpt lat="36.233290" lon="-115.110180">
        <ele>580.067</ele>
        <time>2018-12-27T20:24:22Z</time>
      </trkpt>
      <trkpt lat="36.233640" lon="-115.109740">
        <ele>579.872</ele>
        <time>2018-12-27T20:24:42Z</time>
      </trkpt>
      <trkpt lat="36.234100" lon="-115.109170">
        <ele>580.384</ele>
        <time>2018-12-27T20:25:02Z</time>
      </trkpt>
      <trkpt lat="36.234690" lon="-115.108450">
        <ele>581.007</ele>
        <time>2018-12-27T20:25:22Z</time>
      </trkpt>
      <trkpt lat="36.235210" lon="-115.107820">
        <ele>582.017</ele>
        <time>2018-12-27T20:25:42Z</time>
      </trkpt>
      <trkpt lat="36.235690" lon="-115.107220">
        <ele>582.808</ele>
        <time>2018-12-27T20:26:02Z</time>
      </trkpt>
      <trkpt lat="36.236080" lon="-115.106760">
        <ele>582.971</ele>
        <time>2018-12-27T20:26:22Z</time>
      </trkpt>
      <trkpt lat="36.239590" lon="-115.102450">
        <ele>584.159</ele>
        <time>2018-12-27T20:26:42Z</time>
      </trkpt>
      <trkpt lat="36.239890" lon="-115.102080">
        <ele>584.464</ele>
        <time>2018-12-27T20:27:02Z</time>
      </trkpt>
      <trkpt lat="36.240120" lon="-115.101790">
        <ele>584.755</ele>
        <time>2018-12-27T20:27:22Z</time>
      </trkpt>
      <trkpt lat="36.240300" lon="-115.101560">
        <ele>584.839</ele>
        <time>2018-12-27T20:27:42Z</time>
      </trkpt>
      <trkpt lat="36.240610" lon="-115.101160">
        <ele>584.983</ele>
        <time>2018-12-27T20:28:02Z</time>
      </trkpt>
      <trkpt lat="36.240920" lon="-115.100770">
        <ele>585.162</ele>
        <time>2018-12-27T20:28:22Z</time>
      </trkpt>
      <trkpt lat="36.241440" lon="-115.100100">
        <ele>584.947</ele>
        <time>2018-12-27T20:28:42Z</time>
      </trkpt>
      <trkpt lat="36.242570" lon="-115.098710">
        <ele>585.181</ele>
        <time>2018-12-27T20:29:02Z</time>
      </trkpt>
      <trkpt lat="36.243040" lon="-115.098140">
        <ele>585.561</ele>
        <time>2018-12-27T20:29:22Z</time>
      </trkpt>
      <trkpt lat="36.243400" lon="-115.097690">
        <ele>586.017</ele>
        <time>2018-12-27T20:29:42Z</time>
      </trkpt>
      <trkpt lat="36.243610" lon="-115.097440">
        <ele>586.208</ele>
        <time>2018-12-27T20:30:02Z</time>
      </trkpt>
      <trkpt lat="36.244230" lon="-115.096670">
        <ele>586.091</ele>
        <time>2018-12-27T20:30:22Z</time>
      </trkpt>
      <trkpt lat="36.245140" lon="-115.095550">
        <ele>584.139</ele>
        <time>2018-12-27T20:30:42Z</time>
      </trkpt>
      <trkpt lat="36.245240" lon="-115.095430">
        <ele>584.174</ele>
        <time>2018-12-27T20:31:02Z</time>
      </trkpt>
      <trkpt lat="36.245340" lon="-115.095310">
        <ele>584.175</ele>
        <time>2018-12-27T20:31:22Z</time>
      </trkpt>
      <trkpt lat="36.246410" lon="-115.093990">
        <ele>585.079</ele>
        <time>2018-12-27T20:31:42Z</time>
      </trkpt>
      <trkpt lat="36.247960" lon="-115.092120">
        <ele>591.633</ele>
        <time>2018-12-27T20:32:02Z</time>
      </trkpt>
      <trkpt lat="36.248330" lon="-115.091660">
        <ele>592.892</ele>
        <time>2018-12-27T20:32:22Z</time>
      </trkpt>
      <trkpt lat="36.249800" lon="-115.089850">
        <ele>587.357</ele>
        <time>2018-12-27T20:32:42Z</time>
      </trkpt>
      <trkpt lat="36.253320" lon="-115.085520">
        <ele>589.766</ele>
        <time>2018-12-27T20:33:02Z</time>
      </trkpt>
      <trkpt lat="36.254260" lon="-115.084370">
        <ele>591.829</ele>
        <time>2018-12-27T20:33:22Z</time>
      </trkpt>
      <trkpt lat="36.254470" lon="-115.084120">
        <ele>592.021</ele>
        <time>2018-12-27T20:33:42Z</time>
      </trkpt>
      <trkpt lat="36.255760" lon="-115.082510">
        <ele>592.208</ele>
        <time>2018-12-27T20:34:02Z</time>
      </trkpt>
      <trkpt lat="36.256870" lon="-115.081130">
        <ele>593.849</ele>
        <time>2018-12-27T20:34:22Z</time>
      </trkpt>
      <trkpt lat="36.257550" lon="-115.080300">
        <ele>593.937</ele>
        <time>2018-12-27T20:34:42Z</time>
      </trkpt>
      <trkpt lat="36.257930" lon="-115.079830">
        <ele>593.642</ele>
        <time>2018-12-27T20:35:02Z</time>
      </trkpt>
      <trkpt lat="36.257950" lon="-115.079800">
        <ele>593.553</ele>
        <time>2018-12-27T20:35:22Z</time>
      </trkpt>
      <trkpt lat="36.258050" lon="-115.079680">
        <ele>593.567</ele>
        <time>2018-12-27T20:35:42Z</time>
      </trkpt>
      <trkpt lat="36.258110" lon="-115.079610">
        <ele>593.521</ele>
        <time>2018-12-27T20:36:02Z</time>
      </trkpt>
      <trkpt lat="36.258120" lon="-115.079600">
        <ele>593.540</ele>
        <time>2018-12-27T20:36:22Z</time>
      </trkpt>
      <trkpt lat="36.258690" lon="-115.078920">
        <ele>594.475</ele>
        <time>2018-12-27T20:36:42Z</time>
      </trkpt>
      <trkpt lat="36.259790" lon="-115.077570">
        <ele>596.148</ele>
        <time>2018-12-27T20:37:02Z</time>
      </trkpt>
      <trkpt lat="36.261460" lon="-115.075540">
        <ele>598.161</ele>
        <time>2018-12-27T20:37:22Z</time>
      </trkpt>
      <trkpt lat="36.261970" lon="-115.074910">
        <ele>598.417</ele>
        <time>2018-12-27T20:37:42Z</time>
      </trkpt>
      <trkpt lat="36.262940" lon="-115.073700">
        <ele>600.108</ele>
        <time>2018-12-27T20:38:02Z</time>
      </trkpt>
      <trkpt lat="36.263430" lon="-115.073060">
        <ele>601.187</ele>
        <time>2018-12-27T20:38:22Z</time>
      </trkpt>
      <trkpt lat="36.263720" lon="-115.072670">
        <ele>601.865</ele>
        <time>2018-12-27T20:38:42Z</time>
      </trkpt>
      <trkpt lat="36.263990" lon="-115.072290">
        <ele>602.430</ele>
        <time>2018-12-27T20:39:02Z</time>
      </trkpt>
      <trkpt lat="36.264210" lon="-115.071970">
        <ele>602.931</ele>
        <time>2018-12-27T20:39:22Z</time>
      </trkpt>
      <trkpt lat="36.264380" lon="-115.071720">
        <ele>603.435</ele>
        <time>2018-12-27T20:39:42Z</time>
      </trkpt>
      <trkpt lat="36.264840" lon="-115.070990">
        <ele>604.269</ele>
        <time>2018-12-27T20:40:02Z</time>
      </trkpt>
      <trkpt lat="36.265160" lon="-115.070480">
        <ele>605.438</ele>
        <time>2018-12-27T20:40:22Z</time>
      </trkpt>
      <trkpt lat="36.265420" lon="-115.070030">
        <ele>606.933</ele>
        <time>2018-12-27T20:40:42Z</time>
      </trkpt>
      <trkpt lat="36.265650" lon="-115.069630">
        <ele>607.658</ele>
        <time>2018-12-27T20:41:02Z</time>
      </trkpt>
      <trkpt lat="36.265770" lon="-115.069400">
        <ele>607.952</ele>
        <time>2018-12-27T20:41:22Z</time>
      </trkpt>
      <trkpt lat="36.265950" lon="-115.069090">
        <ele>607.117</ele>
        <time>2018-12-27T20:41:42Z</time>
      </trkpt>
      <trkpt lat="36.266130" lon="-115.068760">
        <ele>605.108</ele>
        <time>2018-12-27T20:42:02Z</time>
      </trkpt>
      <trkpt lat="36.266300" lon="-115.068430">
        <ele>605.548</ele>
        <time>2018-12-27T20:42:22Z</time>
      </trkpt>
      <trkpt lat="36.266480" lon="-115.068080">
        <ele>605.566</ele>
        <time>2018-12-27T20:42:42Z</time>
      </trkpt>
      <trkpt lat="36.266750" lon="-115.067520">
        <ele>605.211</ele>
        <time>2018-12-27T20:43:02Z</time>
      </trkpt>
      <trkpt lat="36.266920" lon="-115.067160">
        <ele>608.842</ele>
        <time>2018-12-27T20:43:22Z</time>
      </trkpt>
      <trkpt lat="36.266940" lon="-115.067110">
        <ele>609.336</ele>
        <time>2018-12-27T20:43:42Z</time>
      </trkpt>
      <trkpt lat="36.267090" lon="-115.066790">
        <ele>610.270</ele>
        <time>2018-12-27T20:44:02Z</time>
      </trkpt>
      <trkpt lat="36.267130" lon="-115.066690">
        <ele>610.379</ele>
        <time>2018-12-27T20:44:22Z</time>
      </trkpt>
      <trkpt lat="36.267270" lon="-115.066380">
        <ele>610.394</ele>
        <time>2018-12-27T20:44:42Z</time>
      </trkpt>
      <trkpt lat="36.267340" lon="-115.066210">
        <ele>610.363</ele>
        <time>2018-12-27T20:45:02Z</time>
      </trkpt>
      <trkpt lat="36.267430" lon="-115.066000">
        <ele>610.344</ele>
        <time>2018-12-27T20:45:22Z</time>
      </trkpt>
      <trkpt lat="36.267460" lon="-115.065930">
        <ele>610.318</ele>
        <time>2018-12-27T20:45:42Z</time>
      </trkpt>
      <trkpt lat="36.267510" lon="-115.065810">
        <ele>610.308</ele>
        <time>2018-12-27T20:46:02Z</time>
      </trkpt>
      <trkpt lat="36.267660" lon="-115.065450">
        <ele>610.379</ele>
        <time>2018-12-27T20:46:22Z</time>
      </trkpt>
      <trkpt lat="36.267780" lon="-115.065140">
        <ele>610.367</ele>
        <time>2018-12-27T20:46:42Z</time>
      </trkpt>
      <trkpt lat="36.267850" lon="-115.064960">
        <ele>610.312</ele>
        <time>2018-12-27T20:47:02Z</time>
      </trkpt>
      <trkpt lat="36.267990" lon="-115.064590">
        <ele>610.453</ele>
        <time>2018-12-27T20:47:22Z</time>
      </trkpt>
      <trkpt lat="36.268130" lon="-115.064220">
        <ele>610.467</ele>
        <time>2018-12-27T20:47:42Z</time>
      </trkpt>
      <trkpt lat="36.268500" lon="-115.063250">
        <ele>610.611</ele>
        <time>2018-12-27T20:48:02Z</time>
      </trkpt>
      <trkpt lat="36.268700" lon="-115.062720">
        <ele>610.520</ele>
        <time>2018-12-27T20:48:22Z</time>
      </trkpt>
      <trkpt lat="36.268770" lon="-115.062540">
        <ele>610.435</ele>
        <time>2018-12-27T20:48:42Z</time>
      </trkpt>
      <trkpt lat="36.268930" lon="-115.062100">
        <ele>609.225</ele>
        <time>2018-12-27T20:49:02Z</time>
      </trkpt>
      <trkpt lat="36.269090" lon="-115.061700">
        <ele>610.126</ele>
        <time>2018-12-27T20:49:22Z</time>
      </trkpt>
      <trkpt lat="36.269210" lon="-115.061350">
        <ele>609.208</ele>
        <time>2018-12-27T20:49:42Z</time>
      </trkpt>
      <trkpt lat="36.269380" lon="-115.060920">
        <ele>605.008</ele>
        <time>2018-12-27T20:50:02Z</time>
      </trkpt>
      <trkpt lat="36.269400" lon="-115.060870">
        <ele>605.245</ele>
        <time>2018-12-27T20:50:22Z</time>
      </trkpt>
      <trkpt lat="36.269460" lon="-115.060720">
        <ele>606.313</ele>
        <time>2018-12-27T20:50:42Z</time>
      </trkpt>
      <trkpt lat="36.269520" lon="-115.060550">
        <ele>608.118</ele>
        <time>2018-12-27T20:51:02Z</time>
      </trkpt>
      <trkpt lat="36.269550" lon="-115.060470">
        <ele>609.279</ele>
        <time>2018-12-27T20:51:22Z</time>
      </trkpt>
      <trkpt lat="36.270430" lon="-115.058090">
        <ele>610.253</ele>
        <time>2018-12-27T20:51:42Z</time>
      </trkpt>
      <trkpt lat="36.271090" lon="-115.056330">
        <ele>606.477</ele>
        <time>2018-12-27T20:52:02Z</time>
      </trkpt>
      <trkpt lat="36.271100" lon="-115.056300">
        <ele>606.456</ele>
        <time>2018-12-27T20:52:22Z</time>
      </trkpt>
      <trkpt lat="36.272320" lon="-115.053060">
        <ele>610.461</ele>
        <time>2018-12-27T20:52:42Z</time>
      </trkpt>
      <trkpt lat="36.272590" lon="-115.052360">
        <ele>611.577</ele>
        <time>2018-12-27T20:53:02Z</time>
      </trkpt>
      <trkpt lat="36.272900" lon="-115.051540">
        <ele>613.761</ele>
        <time>2018-12-27T20:53:22Z</time>
      </trkpt>
      <trkpt lat="36.273470" lon="-115.050010">
        <ele>616.327</ele>
        <time>2018-12-27T20:53:42Z</time>
      </trkpt>
      <trkpt lat="36.273670" lon="-115.049480">
        <ele>616.408</ele>
        <time>2018-12-27T20:54:02Z</time>
      </trkpt>
      <trkpt lat="36.275570" lon="-115.044410">
        <ele>616.250</ele>
        <time>2018-12-27T20:54:22Z</time>
      </trkpt>
      <trkpt lat="36.275660" lon="-115.044190">
        <ele>616.428</ele>
        <time>2018-12-27T20:54:42Z</time>
      </trkpt>
      <trkpt lat="36.276800" lon="-115.041140">
        <ele>616.293</ele>
        <time>2018-12-27T20:55:02Z</time>
      </trkpt>
      <trkpt lat="36.277790" lon="-115.038490">
        <ele>614.754</ele>
        <time>2018-12-27T20:55:22Z</time>
      </trkpt>
      <trkpt lat="36.279060" lon="-115.035110">
        <ele>615.198</ele>
        <time>2018-12-27T20:55:42Z</time>
      </trkpt>
      <trkpt lat="36.279590" lon="-115.033710">
        <ele>616.452</ele>
        <time>2018-12-27T20:56:02Z</time>
      </trkpt>
      <trkpt lat="36.280060" lon="-115.032470">
        <ele>616.591</ele>
        <time>2018-12-27T20:56:22Z</time>
      </trkpt>
      <trkpt lat="36.280920" lon="-115.030180">
        <ele>617.976</ele>
        <time>2018-12-27T20:56:42Z</time>
      </trkpt>
      <trkpt lat="36.281020" lon="-115.029890">
        <ele>619.739</ele>
        <time>2018-12-27T20:57:02Z</time>
      </trkpt>
      <trkpt lat="36.281590" lon="-115.028400">
        <ele>622.501</ele>
        <time>2018-12-27T20:57:22Z</time>
      </trkpt>
      <trkpt lat="36.281960" lon="-115.027420">
        <ele>622.521</ele>
        <time>2018-12-27T20:57:42Z</time>
      </trkpt>
      <trkpt lat="36.282240" lon="-115.026670">
        <ele>622.508</ele>
        <time>2018-12-27T20:58:02Z</time>
      </trkpt>
      <trkpt lat="36.282440" lon="-115.026150">
        <ele>622.536</ele>
        <time>2018-12-27T20:58:22Z</time>
      </trkpt>
      <trkpt lat="36.282500" lon="-115.025970">
        <ele>622.524</ele>
        <time>2018-12-27T20:58:42Z</time>
      </trkpt>
      <trkpt lat="36.282530" lon="-115.025900">
        <ele>622.659</ele>
        <time>2018-12-27T20:59:02Z</time>
      </trkpt>
      <trkpt lat="36.282770" lon="-115.025250">
        <ele>624.920</ele>
        <time>2018-12-27T20:59:22Z</time>
      </trkpt>
      <trkpt lat="36.282930" lon="-115.024800">
        <ele>626.484</ele>
        <time>2018-12-27T20:59:42Z</time>
      </trkpt>
      <trkpt lat="36.283140" lon="-115.024250">
        <ele>626.578</ele>
        <time>2018-12-27T21:00:02Z</time>
      </trkpt>
      <trkpt lat="36.283900" lon="-115.022220">
        <ele>625.957</ele>
        <time>2018-12-27T21:00:22Z</time>
      </trkpt>
      <trkpt lat="36.284070" lon="-115.021760">
        <ele>625.762</ele>
        <time>2018-12-27T21:00:42Z</time>
      </trkpt>
      <trkpt lat="36.284250" lon="-115.021300">
        <ele>626.452</ele>
        <time>2018-12-27T21:01:02Z</time>
      </trkpt>
      <trkpt lat="36.284850" lon="-115.019700">
        <ele>623.153</ele>
        <time>2018-12-27T21:01:22Z</time>
      </trkpt>
      <trkpt lat="36.285390" lon="-115.018250">
        <ele>624.708</ele>
        <time>2018-12-27T21:01:42Z</time>
      </trkpt>
      <trkpt lat="36.285730" lon="-115.017350">
        <ele>625.808</ele>
        <time>2018-12-27T21:02:02Z</time>
      </trkpt>
      <trkpt lat="36.285830" lon="-115.017080">
        <ele>626.198</ele>
        <time>2018-12-27T21:02:22Z</time>
      </trkpt>
      <trkpt lat="36.285960" lon="-115.016740">
        <ele>626.886</ele>
        <time>2018-12-27T21:02:42Z</time>
      </trkpt>
      <trkpt lat="36.286440" lon="-115.015450">
        <ele>628.471</ele>
        <time>2018-12-27T21:03:02Z</time>
      </trkpt>
      <trkpt lat="36.286730" lon="-115.014680">
        <ele>628.722</ele>
        <time>2018-12-27T21:03:22Z</time>
      </trkpt>
      <trkpt lat="36.287460" lon="-115.012740">
        <ele>630.696</ele>
        <time>2018-12-27T21:03:42Z</time>
      </trkpt>
      <trkpt lat="36.287790" lon="-115.011850">
        <ele>632.660</ele>
        <time>2018-12-27T21:04:02Z</time>
      </trkpt>
      <trkpt lat="36.288500" lon="-115.009950">
        <ele>635.259</ele>
        <time>2018-12-27T21:04:22Z</time>
      </trkpt>
      <trkpt lat="36.288870" lon="-115.008970">
        <ele>638.124</ele>
        <time>2018-12-27T21:04:42Z</time>
      </trkpt>
      <trkpt lat="36.289390" lon="-115.007600">
        <ele>640.751</ele>
        <time>2018-12-27T21:05:02Z</time>
      </trkpt>
      <trkpt lat="36.291050" lon="-115.003160">
        <ele>647.101</ele>
        <time>2018-12-27T21:05:22Z</time>
      </trkpt>
      <trkpt lat="36.294100" lon="-114.995030">
        <ele>660.111</ele>
        <time>2018-12-27T21:05:42Z</time>
      </trkpt>
      <trkpt lat="36.295580" lon="-114.991060">
        <ele>664.108</ele>
        <time>2018-12-27T21:06:02Z</time>
      </trkpt>
      <trkpt lat="36.295690" lon="-114.990790">
        <ele>664.558</ele>
        <time>2018-12-27T21:06:22Z</time>
      </trkpt>
      <trkpt lat="36.295740" lon="-114.990660">
        <ele>664.746</ele>
        <time>2018-12-27T21:06:42Z</time>
      </trkpt>
      <trkpt lat="36.295780" lon="-114.990530">
        <ele>664.871</ele>
        <time>2018-12-27T21:07:02Z</time>
      </trkpt>
      <trkpt lat="36.296030" lon="-114.989870">
        <ele>665.362</ele>
        <time>2018-12-27T21:07:22Z</time>
      </trkpt>
      <trkpt lat="36.296360" lon="-114.988960">
        <ele>666.326</ele>
        <time>2018-12-27T21:07:42Z</time>
      </trkpt>
      <trkpt lat="36.296550" lon="-114.988480">
        <ele>667.140</ele>
        <time>2018-12-27T21:08:02Z</time>
      </trkpt>
      <trkpt lat="36.296690" lon="-114.988110">
        <ele>667.869</ele>
        <time>2018-12-27T21:08:22Z</time>
      </trkpt>
      <trkpt lat="36.297410" lon="-114.986180">
        <ele>670.434</ele>
        <time>2018-12-27T21:08:42Z</time>
      </trkpt>
      <trkpt lat="36.297700" lon="-114.985400">
        <ele>670.554</ele>
        <time>2018-12-27T21:09:02Z</time>
      </trkpt>
      <trkpt lat="36.298010" lon="-114.984590">
        <ele>670.656</ele>
        <time>2018-12-27T21:09:22Z</time>
      </trkpt>
      <trkpt lat="36.298100" lon="-114.984360">
        <ele>670.711</ele>
        <time>2018-12-27T21:09:42Z</time>
      </trkpt>
      <trkpt lat="36.298320" lon="-114.983760">
        <ele>670.908</ele>
        <time>2018-12-27T21:10:02Z</time>
      </trkpt>
      <trkpt lat="36.298420" lon="-114.983510">
        <ele>671.288</ele>
        <time>2018-12-27T21:10:22Z</time>
      </trkpt>
      <trkpt lat="36.298600" lon="-114.983020">
        <ele>671.346</ele>
        <time>2018-12-27T21:10:42Z</time>
      </trkpt>
      <trkpt lat="36.298740" lon="-114.982650">
        <ele>671.311</ele>
        <time>2018-12-27T21:11:02Z</time>
      </trkpt>
      <trkpt lat="36.298960" lon="-114.982050">
        <ele>671.362</ele>
        <time>2018-12-27T21:11:22Z</time>
      </trkpt>
      <trkpt lat="36.299100" lon="-114.981680">
        <ele>671.366</ele>
        <time>2018-12-27T21:11:42Z</time>
      </trkpt>
      <trkpt lat="36.299230" lon="-114.981320">
        <ele>671.460</ele>
        <time>2018-12-27T21:12:02Z</time>
      </trkpt>
      <trkpt lat="36.299460" lon="-114.980710">
        <ele>672.849</ele>
        <time>2018-12-27T21:12:22Z</time>
      </trkpt>
      <trkpt lat="36.299730" lon="-114.980010">
        <ele>673.794</ele>
        <time>2018-12-27T21:12:42Z</time>
      </trkpt>
      <trkpt lat="36.299920" lon="-114.979490">
        <ele>674.327</ele>
        <time>2018-12-27T21:13:02Z</time>
      </trkpt>
      <trkpt lat="36.300280" lon="-114.978510">
        <ele>675.568</ele>
        <time>2018-12-27T21:13:22Z</time>
      </trkpt>
      <trkpt lat="36.300680" lon="-114.977450">
        <ele>678.914</ele>
        <time>2018-12-27T21:13:42Z</time>
      </trkpt>
      <trkpt lat="36.301540" lon="-114.975170">
        <ele>683.508</ele>
        <time>2018-12-27T21:14:02Z</time>
      </trkpt>
      <trkpt lat="36.301920" lon="-114.974150">
        <ele>683.635</ele>
        <time>2018-12-27T21:14:22Z</time>
      </trkpt>
      <trkpt lat="36.302480" lon="-114.972640">
        <ele>686.463</ele>
        <time>2018-12-27T21:14:42Z</time>
      </trkpt>
      <trkpt lat="36.303020" lon="-114.971210">
        <ele>692.238</ele>
        <time>2018-12-27T21:15:02Z</time>
      </trkpt>
      <trkpt lat="36.303500" lon="-114.969930">
        <ele>695.529</ele>
        <time>2018-12-27T21:15:22Z</time>
      </trkpt>
      <trkpt lat="36.304170" lon="-114.968170">
        <ele>696.213</ele>
        <time>2018-12-27T21:15:42Z</time>
      </trkpt>
      <trkpt lat="36.304530" lon="-114.967220">
        <ele>696.537</ele>
        <time>2018-12-27T21:16:02Z</time>
      </trkpt>
      <trkpt lat="36.304720" lon="-114.966690">
        <ele>696.836</ele>
        <time>2018-12-27T21:16:22Z</time>
      </trkpt>
      <trkpt lat="36.305080" lon="-114.965750">
        <ele>696.761</ele>
        <time>2018-12-27T21:16:42Z</time>
      </trkpt>
      <trkpt lat="36.305490" lon="-114.964620">
        <ele>702.484</ele>
        <time>2018-12-27T21:17:02Z</time>
      </trkpt>
      <trkpt lat="36.305870" lon="-114.963600">
        <ele>707.307</ele>
        <time>2018-12-27T21:17:22Z</time>
      </trkpt>
      <trkpt lat="36.306250" lon="-114.962590">
        <ele>707.617</ele>
        <time>2018-12-27T21:17:42Z</time>
      </trkpt>
      <trkpt lat="36.306980" lon="-114.960650">
        <ele>709.608</ele>
        <time>2018-12-27T21:18:02Z</time>
      </trkpt>
      <trkpt lat="36.307130" lon="-114.960240">
        <ele>714.391</ele>
        <time>2018-12-27T21:18:22Z</time>
      </trkpt>
      <trkpt lat="36.307190" lon="-114.960080">
        <ele>716.549</ele>
        <time>2018-12-27T21:18:42Z</time>
      </trkpt>
      <trkpt lat="36.307320" lon="-114.959720">
        <ele>717.934</ele>
        <time>2018-12-27T21:19:02Z</time>
      </trkpt>
      <trkpt lat="36.307360" lon="-114.959600">
        <ele>718.465</ele>
        <time>2018-12-27T21:19:22Z</time>
      </trkpt>
      <trkpt lat="36.307410" lon="-114.959470">
        <ele>718.989</ele>
        <time>2018-12-27T21:19:42Z</time>
      </trkpt>
      <trkpt lat="36.307500" lon="-114.959230">
        <ele>719.663</ele>
        <time>2018-12-27T21:20:02Z</time>
      </trkpt>
      <trkpt lat="36.307540" lon="-114.959120">
        <ele>719.752</ele>
        <time>2018-12-27T21:20:22Z</time>
      </trkpt>
      <trkpt lat="36.307920" lon="-114.958120">
        <ele>718.677</ele>
        <time>2018-12-27T21:20:42Z</time>
      </trkpt>
      <trkpt lat="36.308420" lon="-114.956820">
        <ele>715.277</ele>
        <time>2018-12-27T21:21:02Z</time>
      </trkpt>
      <trkpt lat="36.308590" lon="-114.956360">
        <ele>713.461</ele>
        <time>2018-12-27T21:21:22Z</time>
      </trkpt>
      <trkpt lat="36.308990" lon="-114.955280">
        <ele>713.827</ele>
        <time>2018-12-27T21:21:42Z</time>
      </trkpt>
      <trkpt lat="36.309170" lon="-114.954790">
        <ele>716.808</ele>
        <time>2018-12-27T21:22:02Z</time>
      </trkpt>
      <trkpt lat="36.309350" lon="-114.954300">
        <ele>719.950</ele>
        <time>2018-12-27T21:22:22Z</time>
      </trkpt>
      <trkpt lat="36.309680" lon="-114.953420">
        <ele>719.998</ele>
        <time>2018-12-27T21:22:42Z</time>
      </trkpt>
      <trkpt lat="36.309840" lon="-114.953000">
        <ele>719.923</ele>
        <time>2018-12-27T21:23:02Z</time>
      </trkpt>
      <trkpt lat="36.309930" lon="-114.952770">
        <ele>719.934</ele>
        <time>2018-12-27T21:23:22Z</time>
      </trkpt>
      <trkpt lat="36.310000" lon="-114.952560">
        <ele>719.898</ele>
        <time>2018-12-27T21:23:42Z</time>
      </trkpt>
      <trkpt lat="36.310010" lon="-114.952560">
        <ele>719.812</ele>
        <time>2018-12-27T21:24:02Z</time>
      </trkpt>
      <trkpt lat="36.310190" lon="-114.952080">
        <ele>720.051</ele>
        <time>2018-12-27T21:24:22Z</time>
      </trkpt>
      <trkpt lat="36.310440" lon="-114.951410">
        <ele>720.086</ele>
        <time>2018-12-27T21:24:42Z</time>
      </trkpt>
      <trkpt lat="36.310580" lon="-114.951010">
        <ele>720.037</ele>
        <time>2018-12-27T21:25:02Z</time>
      </trkpt>
      <trkpt lat="36.310770" lon="-114.950510">
        <ele>720.149</ele>
        <time>2018-12-27T21:25:22Z</time>
      </trkpt>
      <trkpt lat="36.311000" lon="-114.949910">
        <ele>720.113</ele>
        <time>2018-12-27T21:25:42Z</time>
      </trkpt>
      <trkpt lat="36.311090" lon="-114.949670">
        <ele>720.108</ele>
        <time>2018-12-27T21:26:02Z</time>
      </trkpt>
      <trkpt lat="36.311370" lon="-114.948910">
        <ele>720.056</ele>
        <time>2018-12-27T21:26:22Z</time>
      </trkpt>
      <trkpt lat="36.311550" lon="-114.948450">
        <ele>720.374</ele>
        <time>2018-12-27T21:26:42Z</time>
      </trkpt>
      <trkpt lat="36.311660" lon="-114.948210">
        <ele>720.799</ele>
        <time>2018-12-27T21:27:02Z</time>
      </trkpt>
      <trkpt lat="36.311760" lon="-114.947970">
        <ele>722.750</ele>
        <time>2018-12-27T21:27:22Z</time>
      </trkpt>
      <trkpt lat="36.312000" lon="-114.947460">
        <ele>724.494</ele>
        <time>2018-12-27T21:27:42Z</time>
      </trkpt>
      <trkpt lat="36.312130" lon="-114.947200">
        <ele>724.518</ele>
        <time>2018-12-27T21:28:02Z</time>
      </trkpt>
      <trkpt lat="36.312240" lon="-114.946980">
        <ele>724.657</ele>
        <time>2018-12-27T21:28:22Z</time>
      </trkpt>
      <trkpt lat="36.312330" lon="-114.946810">
        <ele>724.592</ele>
        <time>2018-12-27T21:28:42Z</time>
      </trkpt>
      <trkpt lat="36.312480" lon="-114.946520">
        <ele>724.297</ele>
        <time>2018-12-27T21:29:02Z</time>
      </trkpt>
      <trkpt lat="36.312660" lon="-114.946200">
        <ele>724.323</ele>
        <time>2018-12-27T21:29:22Z</time>
      </trkpt>
      <trkpt lat="36.312800" lon="-114.945970">
        <ele>724.325</ele>
        <time>2018-12-27T21:29:42Z</time>
      </trkpt>
      <trkpt lat="36.312860" lon="-114.945870">
        <ele>724.208</ele>
        <time>2018-12-27T21:30:02Z</time>
      </trkpt>
      <trkpt lat="36.312990" lon="-114.945660">
        <ele>723.852</ele>
        <time>2018-12-27T21:30:22Z</time>
      </trkpt>
      <trkpt lat="36.313180" lon="-114.945360">
        <ele>723.570</ele>
        <time>2018-12-27T21:30:42Z</time>
      </trkpt>
      <trkpt lat="36.313350" lon="-114.945110">
        <ele>724.765</ele>
        <time>2018-12-27T21:31:02Z</time>
      </trkpt>
      <trkpt lat="36.313610" lon="-114.944740">
        <ele>729.596</ele>
        <time>2018-12-27T21:31:22Z</time>
      </trkpt>
      <trkpt lat="36.313910" lon="-114.944350">
        <ele>730.420</ele>
        <time>2018-12-27T21:31:42Z</time>
      </trkpt>
      <trkpt lat="36.313990" lon="-114.944240">
        <ele>729.624</ele>
        <time>2018-12-27T21:32:02Z</time>
      </trkpt>
      <trkpt lat="36.314130" lon="-114.944070">
        <ele>729.273</ele>
        <time>2018-12-27T21:32:22Z</time>
      </trkpt>
      <trkpt lat="36.314370" lon="-114.943770">
        <ele>728.928</ele>
        <time>2018-12-27T21:32:42Z</time>
      </trkpt>
      <trkpt lat="36.314610" lon="-114.943490">
        <ele>728.917</ele>
        <time>2018-12-27T21:33:02Z</time>
      </trkpt>
      <trkpt lat="36.314850" lon="-114.943230">
        <ele>729.787</ele>
        <time>2018-12-27T21:33:22Z</time>
      </trkpt>
      <trkpt lat="36.315100" lon="-114.942970">
        <ele>731.715</ele>
        <time>2018-12-27T21:33:42Z</time>
      </trkpt>
      <trkpt lat="36.315250" lon="-114.942820">
        <ele>733.608</ele>
        <time>2018-12-27T21:34:02Z</time>
      </trkpt>
      <trkpt lat="36.315760" lon="-114.942320">
        <ele>735.044</ele>
        <time>2018-12-27T21:34:22Z</time>
      </trkpt>
      <trkpt lat="36.316280" lon="-114.941820">
        <ele>734.712</ele>
        <time>2018-12-27T21:34:42Z</time>
      </trkpt>
      <trkpt lat="36.316960" lon="-114.941150">
        <ele>734.787</ele>
        <time>2018-12-27T21:35:02Z</time>
      </trkpt>
      <trkpt lat="36.317290" lon="-114.940830">
        <ele>734.698</ele>
        <time>2018-12-27T21:35:22Z</time>
      </trkpt>
      <trkpt lat="36.318070" lon="-114.940070">
        <ele>735.192</ele>
        <time>2018-12-27T21:35:42Z</time>
      </trkpt>
      <trkpt lat="36.318390" lon="-114.939750">
        <ele>740.526</ele>
        <time>2018-12-27T21:36:02Z</time>
      </trkpt>
      <trkpt lat="36.318640" lon="-114.939500">
        <ele>747.365</ele>
        <time>2018-12-27T21:36:22Z</time>
      </trkpt>
      <trkpt lat="36.319020" lon="-114.939100">
        <ele>750.960</ele>
        <time>2018-12-27T21:36:42Z</time>
      </trkpt>
      <trkpt lat="36.319370" lon="-114.938730">
        <ele>752.224</ele>
        <time>2018-12-27T21:37:02Z</time>
      </trkpt>
      <trkpt lat="36.319790" lon="-114.938230">
        <ele>753.404</ele>
        <time>2018-12-27T21:37:22Z</time>
      </trkpt>
      <trkpt lat="36.320170" lon="-114.937770">
        <ele>754.314</ele>
        <time>2018-12-27T21:37:42Z</time>
      </trkpt>
      <trkpt lat="36.320620" lon="-114.937220">
        <ele>754.308</ele>
        <time>2018-12-27T21:38:02Z</time>
      </trkpt>
      <trkpt lat="36.320920" lon="-114.936820">
        <ele>754.225</ele>
        <time>2018-12-27T21:38:22Z</time>
      </trkpt>
      <trkpt lat="36.321290" lon="-114.936340">
        <ele>756.633</ele>
        <time>2018-12-27T21:38:42Z</time>
      </trkpt>
      <trkpt lat="36.321420" lon="-114.936140">
        <ele>757.718</ele>
        <time>2018-12-27T21:39:02Z</time>
      </trkpt>
      <trkpt lat="36.321640" lon="-114.935830">
        <ele>758.889</ele>
        <time>2018-12-27T21:39:22Z</time>
      </trkpt>
      <trkpt lat="36.321860" lon="-114.935520">
        <ele>759.313</ele>
        <time>2018-12-27T21:39:42Z</time>
      </trkpt>
      <trkpt lat="36.322130" lon="-114.935120">
        <ele>759.547</ele>
        <time>2018-12-27T21:40:02Z</time>
      </trkpt>
      <trkpt lat="36.322460" lon="-114.934610">
        <ele>760.056</ele>
        <time>2018-12-27T21:40:22Z</time>
      </trkpt>
      <trkpt lat="36.322830" lon="-114.934000">
        <ele>760.661</ele>
        <time>2018-12-27T21:40:42Z</time>
      </trkpt>
      <trkpt lat="36.323290" lon="-114.933230">
        <ele>761.442</ele>
        <time>2018-12-27T21:41:02Z</time>
      </trkpt>
      <trkpt lat="36.323680" lon="-114.932510">
        <ele>762.022</ele>
        <time>2018-12-27T21:41:22Z</time>
      </trkpt>
      <trkpt lat="36.323720" lon="-114.932440">
        <ele>762.114</ele>
        <time>2018-12-27T21:41:42Z</time>
      </trkpt>
      <trkpt lat="36.324010" lon="-114.931890">
        <ele>762.408</ele>
        <time>2018-12-27T21:42:02Z</time>
      </trkpt>
      <trkpt lat="36.324430" lon="-114.931110">
        <ele>762.837</ele>
        <time>2018-12-27T21:42:22Z</time>
      </trkpt>
      <trkpt lat="36.324730" lon="-114.930560">
        <ele>762.825</ele>
        <time>2018-12-27T21:42:42Z</time>
      </trkpt>
      <trkpt lat="36.325030" lon="-114.930000">
        <ele>762.670</ele>
        <time>2018-12-27T21:43:02Z</time>
      </trkpt>
      <trkpt lat="36.325270" lon="-114.929540">
        <ele>762.371</ele>
        <time>2018-12-27T21:43:22Z</time>
      </trkpt>
      <trkpt lat="36.325560" lon="-114.928990">
        <ele>761.895</ele>
        <time>2018-12-27T21:43:42Z</time>
      </trkpt>
      <trkpt lat="36.325800" lon="-114.928540">
        <ele>761.569</ele>
        <time>2018-12-27T21:44:02Z</time>
      </trkpt>
      <trkpt lat="36.326150" lon="-114.927880">
        <ele>761.098</ele>
        <time>2018-12-27T21:44:22Z</time>
      </trkpt>
      <trkpt lat="36.326520" lon="-114.927210">
        <ele>760.843</ele>
        <time>2018-12-27T21:44:42Z</time>
      </trkpt>
      <trkpt lat="36.326740" lon="-114.926790">
        <ele>761.154</ele>
        <time>2018-12-27T21:45:02Z</time>
      </trkpt>
      <trkpt lat="36.327020" lon="-114.926330">
        <ele>761.056</ele>
        <time>2018-12-27T21:45:22Z</time>
      </trkpt>
      <trkpt lat="36.327310" lon="-114.925860">
        <ele>760.811</ele>
        <time>2018-12-27T21:45:42Z</time>
      </trkpt>
      <trkpt lat="36.327690" lon="-114.925330">
        <ele>760.208</ele>
        <time>2018-12-27T21:46:02Z</time>
      </trkpt>
      <trkpt lat="36.327920" lon="-114.925020">
        <ele>758.118</ele>
        <time>2018-12-27T21:46:22Z</time>
      </trkpt>
      <trkpt lat="36.328050" lon="-114.924850">
        <ele>756.456</ele>
        <time>2018-12-27T21:46:42Z</time>
      </trkpt>
      <trkpt lat="36.328180" lon="-114.924680">
        <ele>755.051</ele>
        <time>2018-12-27T21:47:02Z</time>
      </trkpt>
      <trkpt lat="36.328310" lon="-114.924520">
        <ele>754.572</ele>
        <time>2018-12-27T21:47:22Z</time>
      </trkpt>
      <trkpt lat="36.328460" lon="-114.924330">
        <ele>753.996</ele>
        <time>2018-12-27T21:47:42Z</time>
      </trkpt>
      <trkpt lat="36.328630" lon="-114.924140">
        <ele>753.810</ele>
        <time>2018-12-27T21:48:02Z</time>
      </trkpt>
      <trkpt lat="36.328790" lon="-114.923960">
        <ele>753.769</ele>
        <time>2018-12-27T21:48:22Z</time>
      </trkpt>
      <trkpt lat="36.329020" lon="-114.923710">
        <ele>754.424</ele>
        <time>2018-12-27T21:48:42Z</time>
      </trkpt>
      <trkpt lat="36.329180" lon="-114.923540">
        <ele>754.755</ele>
        <time>2018-12-27T21:49:02Z</time>
      </trkpt>
      <trkpt lat="36.329330" lon="-114.923390">
        <ele>754.807</ele>
        <time>2018-12-27T21:49:22Z</time>
      </trkpt>
      <trkpt lat="36.329560" lon="-114.923160">
        <ele>755.317</ele>
        <time>2018-12-27T21:49:42Z</time>
      </trkpt>
      <trkpt lat="36.329800" lon="-114.922950">
        <ele>755.708</ele>
        <time>2018-12-27T21:50:02Z</time>
      </trkpt>
      <trkpt lat="36.330160" lon="-114.922610">
        <ele>754.888</ele>
        <time>2018-12-27T21:50:22Z</time>
      </trkpt>
      <trkpt lat="36.330330" lon="-114.922470">
        <ele>754.446</ele>
        <time>2018-12-27T21:50:42Z</time>
      </trkpt>
      <trkpt lat="36.330430" lon="-114.922400">
        <ele>754.211</ele>
        <time>2018-12-27T21:51:02Z</time>
      </trkpt>
      <trkpt lat="36.330520" lon="-114.922320">
        <ele>754.142</ele>
        <time>2018-12-27T21:51:22Z</time>
      </trkpt>
      <trkpt lat="36.330710" lon="-114.922170">
        <ele>753.816</ele>
        <time>2018-12-27T21:51:42Z</time>
      </trkpt>
      <trkpt lat="36.330970" lon="-114.921960">
        <ele>754.160</ele>
        <time>2018-12-27T21:52:02Z</time>
      </trkpt>
      <trkpt lat="36.332420" lon="-114.920770">
        <ele>751.089</ele>
        <time>2018-12-27T21:52:22Z</time>
      </trkpt>
      <trkpt lat="36.333040" lon="-114.920260">
        <ele>749.824</ele>
        <time>2018-12-27T21:52:42Z</time>
      </trkpt>
      <trkpt lat="36.333600" lon="-114.919810">
        <ele>748.652</ele>
        <time>2018-12-27T21:53:02Z</time>
      </trkpt>
      <trkpt lat="36.333860" lon="-114.919590">
        <ele>748.253</ele>
        <time>2018-12-27T21:53:22Z</time>
      </trkpt>
      <trkpt lat="36.334330" lon="-114.919210">
        <ele>747.008</ele>
        <time>2018-12-27T21:53:42Z</time>
      </trkpt>
      <trkpt lat="36.335610" lon="-114.918180">
        <ele>745.408</ele>
        <time>2018-12-27T21:54:02Z</time>
      </trkpt>
      <trkpt lat="36.336250" lon="-114.917660">
        <ele>744.518</ele>
        <time>2018-12-27T21:54:22Z</time>
      </trkpt>
      <trkpt lat="36.336970" lon="-114.917070">
        <ele>744.516</ele>
        <time>2018-12-27T21:54:42Z</time>
      </trkpt>
      <trkpt lat="36.337780" lon="-114.916430">
        <ele>743.041</ele>
        <time>2018-12-27T21:55:02Z</time>
      </trkpt>
      <trkpt lat="36.338020" lon="-114.916230">
        <ele>742.892</ele>
        <time>2018-12-27T21:55:22Z</time>
      </trkpt>
      <trkpt lat="36.338940" lon="-114.915490">
        <ele>741.526</ele>
        <time>2018-12-27T21:55:42Z</time>
      </trkpt>
      <trkpt lat="36.339160" lon="-114.915320">
        <ele>741.770</ele>
        <time>2018-12-27T21:56:02Z</time>
      </trkpt>
      <trkpt lat="36.339530" lon="-114.915010">
        <ele>741.979</ele>
        <time>2018-12-27T21:56:22Z</time>
      </trkpt>
      <trkpt lat="36.340410" lon="-114.914290">
        <ele>741.884</ele>
        <time>2018-12-27T21:56:42Z</time>
      </trkpt>
      <trkpt lat="36.341590" lon="-114.913340">
        <ele>739.081</ele>
        <time>2018-12-27T21:57:02Z</time>
      </trkpt>
      <trkpt lat="36.341960" lon="-114.913050">
        <ele>737.661</ele>
        <time>2018-12-27T21:57:22Z</time>
      </trkpt>
      <trkpt lat="36.342850" lon="-114.912330">
        <ele>734.517</ele>
        <time>2018-12-27T21:57:42Z</time>
      </trkpt>
      <trkpt lat="36.343140" lon="-114.912100">
        <ele>734.408</ele>
        <time>2018-12-27T21:58:02Z</time>
      </trkpt>
      <trkpt lat="36.343490" lon="-114.911810">
        <ele>734.221</ele>
        <time>2018-12-27T21:58:22Z</time>
      </trkpt>
      <trkpt lat="36.343850" lon="-114.911510">
        <ele>734.439</ele>
        <time>2018-12-27T21:58:42Z</time>
      </trkpt>
      <trkpt lat="36.344420" lon="-114.911040">
        <ele>734.384</ele>
        <time>2018-12-27T21:59:02Z</time>
      </trkpt>
      <trkpt lat="36.344960" lon="-114.910610">
        <ele>734.215</ele>
        <time>2018-12-27T21:59:22Z</time>
      </trkpt>
      <trkpt lat="36.346220" lon="-114.909590">
        <ele>731.829</ele>
        <time>2018-12-27T21:59:42Z</time>
      </trkpt>
      <trkpt lat="36.346770" lon="-114.909150">
        <ele>731.933</ele>
        <time>2018-12-27T22:00:02Z</time>
      </trkpt>
      <trkpt lat="36.346860" lon="-114.909070">
        <ele>731.842</ele>
        <time>2018-12-27T22:00:22Z</time>
      </trkpt>
      <trkpt lat="36.347310" lon="-114.908710">
        <ele>731.677</ele>
        <time>2018-12-27T22:00:42Z</time>
      </trkpt>
      <trkpt lat="36.348410" lon="-114.907820">
        <ele>729.575</ele>
        <time>2018-12-27T22:01:02Z</time>
      </trkpt>
      <trkpt lat="36.348780" lon="-114.907530">
        <ele>728.828</ele>
        <time>2018-12-27T22:01:22Z</time>
      </trkpt>
      <trkpt lat="36.349030" lon="-114.907320">
        <ele>728.220</ele>
        <time>2018-12-27T22:01:42Z</time>
      </trkpt>
      <trkpt lat="36.349400" lon="-114.907020">
        <ele>728.108</ele>
        <time>2018-12-27T22:02:02Z</time>
      </trkpt>
      <trkpt lat="36.349760" lon="-114.906730">
        <ele>728.020</ele>
        <time>2018-12-27T22:02:22Z</time>
      </trkpt>
      <trkpt lat="36.350140" lon="-114.906430">
        <ele>727.868</ele>
        <time>2018-12-27T22:02:42Z</time>
      </trkpt>
      <trkpt lat="36.350670" lon="-114.906000">
        <ele>727.073</ele>
        <time>2018-12-27T22:03:02Z</time>
      </trkpt>
      <trkpt lat="36.351050" lon="-114.905700">
        <ele>726.714</ele>
        <time>2018-12-27T22:03:22Z</time>
      </trkpt>
      <trkpt lat="36.351220" lon="-114.905560">
        <ele>726.478</ele>
        <time>2018-12-27T22:03:42Z</time>
      </trkpt>
      <trkpt lat="36.351310" lon="-114.905490">
        <ele>726.382</ele>
        <time>2018-12-27T22:04:02Z</time>
      </trkpt>
      <trkpt lat="36.351480" lon="-114.905370">
        <ele>726.271</ele>
        <time>2018-12-27T22:04:22Z</time>
      </trkpt>
      <trkpt lat="36.352060" lon="-114.904980">
        <ele>725.396</ele>
        <time>2018-12-27T22:04:42Z</time>
      </trkpt>
      <trkpt lat="36.352270" lon="-114.904840">
        <ele>724.931</ele>
        <time>2018-12-27T22:05:02Z</time>
      </trkpt>
      <trkpt lat="36.352570" lon="-114.904660">
        <ele>724.461</ele>
        <time>2018-12-27T22:05:22Z</time>
      </trkpt>
      <trkpt lat="36.352840" lon="-114.904500">
        <ele>724.107</ele>
        <time>2018-12-27T22:05:42Z</time>
      </trkpt>
      <trkpt lat="36.353140" lon="-114.904330">
        <ele>723.608</ele>
        <time>2018-12-27T22:06:02Z</time>
      </trkpt>
      <trkpt lat="36.353430" lon="-114.904190">
        <ele>723.296</ele>
        <time>2018-12-27T22:06:22Z</time>
      </trkpt>
      <trkpt lat="36.353870" lon="-114.903970">
        <ele>722.554</ele>
        <time>2018-12-27T22:06:42Z</time>
      </trkpt>
      <trkpt lat="36.354180" lon="-114.903850">
        <ele>722.019</ele>
        <time>2018-12-27T22:07:02Z</time>
      </trkpt>
      <trkpt lat="36.354490" lon="-114.903720">
        <ele>721.350</ele>
        <time>2018-12-27T22:07:22Z</time>
      </trkpt>
      <trkpt lat="36.354800" lon="-114.903610">
        <ele>720.424</ele>
        <time>2018-12-27T22:07:42Z</time>
      </trkpt>
      <trkpt lat="36.355010" lon="-114.903540">
        <ele>719.878</ele>
        <time>2018-12-27T22:08:02Z</time>
      </trkpt>
      <trkpt lat="36.355220" lon="-114.903470">
        <ele>719.147</ele>
        <time>2018-12-27T22:08:22Z</time>
      </trkpt>
      <trkpt lat="36.355430" lon="-114.903410">
        <ele>718.522</ele>
        <time>2018-12-27T22:08:42Z</time>
      </trkpt>
      <trkpt lat="36.355750" lon="-114.903320">
        <ele>717.971</ele>
        <time>2018-12-27T22:09:02Z</time>
      </trkpt>
      <trkpt lat="36.356070" lon="-114.903240">
        <ele>717.541</ele>
        <time>2018-12-27T22:09:22Z</time>
      </trkpt>
      <trkpt lat="36.356390" lon="-114.903170">
        <ele>717.315</ele>
        <time>2018-12-27T22:09:42Z</time>
      </trkpt>
      <trkpt lat="36.356820" lon="-114.903090">
        <ele>716.908</ele>
        <time>2018-12-27T22:10:02Z</time>
      </trkpt>
      <trkpt lat="36.357150" lon="-114.903040">
        <ele>715.660</ele>
        <time>2018-12-27T22:10:22Z</time>
      </trkpt>
      <trkpt lat="36.357460" lon="-114.903010">
        <ele>713.498</ele>
        <time>2018-12-27T22:10:42Z</time>
      </trkpt>
      <trkpt lat="36.357690" lon="-114.902990">
        <ele>711.423</ele>
        <time>2018-12-27T22:11:02Z</time>
      </trkpt>
      <trkpt lat="36.358010" lon="-114.902980">
        <ele>708.844</ele>
        <time>2018-12-27T22:11:22Z</time>
      </trkpt>
      <trkpt lat="36.359960" lon="-114.902930">
        <ele>707.598</ele>
        <time>2018-12-27T22:11:42Z</time>
      </trkpt>
      <trkpt lat="36.360290" lon="-114.902920">
        <ele>707.112</ele>
        <time>2018-12-27T22:12:02Z</time>
      </trkpt>
      <trkpt lat="36.360620" lon="-114.902920">
        <ele>706.631</ele>
        <time>2018-12-27T22:12:22Z</time>
      </trkpt>
      <trkpt lat="36.360940" lon="-114.902890">
        <ele>706.166</ele>
        <time>2018-12-27T22:12:42Z</time>
      </trkpt>
      <trkpt lat="36.361240" lon="-114.902860">
        <ele>705.937</ele>
        <time>2018-12-27T22:13:02Z</time>
      </trkpt>
      <trkpt lat="36.361450" lon="-114.902830">
        <ele>705.849</ele>
        <time>2018-12-27T22:13:22Z</time>
      </trkpt>
      <trkpt lat="36.361500" lon="-114.902820">
        <ele>705.713</ele>
        <time>2018-12-27T22:13:42Z</time>
      </trkpt>
      <trkpt lat="36.361690" lon="-114.902790">
        <ele>705.408</ele>
        <time>2018-12-27T22:14:02Z</time>
      </trkpt>
      <trkpt lat="36.361900" lon="-114.902750">
        <ele>705.176</ele>
        <time>2018-12-27T22:14:22Z</time>
      </trkpt>
      <trkpt lat="36.362120" lon="-114.902690">
        <ele>704.924</ele>
        <time>2018-12-27T22:14:42Z</time>
      </trkpt>
      <trkpt lat="36.362330" lon="-114.902640">
        <ele>704.769</ele>
        <time>2018-12-27T22:15:02Z</time>
      </trkpt>
      <trkpt lat="36.362440" lon="-114.902590">
        <ele>704.760</ele>
        <time>2018-12-27T22:15:22Z</time>
      </trkpt>
      <trkpt lat="36.362640" lon="-114.902530">
        <ele>704.544</ele>
        <time>2018-12-27T22:15:42Z</time>
      </trkpt>
      <trkpt lat="36.362840" lon="-114.902450">
        <ele>704.358</ele>
        <time>2018-12-27T22:16:02Z</time>
      </trkpt>
      <trkpt lat="36.363260" lon="-114.902290">
        <ele>704.137</ele>
        <time>2018-12-27T22:16:22Z</time>
      </trkpt>
      <trkpt lat="36.363560" lon="-114.902150">
        <ele>703.762</ele>
        <time>2018-12-27T22:16:42Z</time>
      </trkpt>
      <trkpt lat="36.363850" lon="-114.901990">
        <ele>703.177</ele>
        <time>2018-12-27T22:17:02Z</time>
      </trkpt>
      <trkpt lat="36.363950" lon="-114.901940">
        <ele>702.961</ele>
        <time>2018-12-27T22:17:22Z</time>
      </trkpt>
      <trkpt lat="36.363980" lon="-114.901920">
        <ele>702.827</ele>
        <time>2018-12-27T22:17:42Z</time>
      </trkpt>
      <trkpt lat="36.364150" lon="-114.901820">
        <ele>702.608</ele>
        <time>2018-12-27T22:18:02Z</time>
      </trkpt>
      <trkpt lat="36.364520" lon="-114.901600">
        <ele>702.110</ele>
        <time>2018-12-27T22:18:22Z</time>
      </trkpt>
      <trkpt lat="36.364910" lon="-114.901370">
        <ele>701.648</ele>
        <time>2018-12-27T22:18:42Z</time>
      </trkpt>
      <trkpt lat="36.365320" lon="-114.901110">
        <ele>701.073</ele>
        <time>2018-12-27T22:19:02Z</time>
      </trkpt>
      <trkpt lat="36.365610" lon="-114.900930">
        <ele>700.534</ele>
        <time>2018-12-27T22:19:22Z</time>
      </trkpt>
      <trkpt lat="36.366180" lon="-114.900580">
        <ele>699.748</ele>
        <time>2018-12-27T22:19:42Z</time>
      </trkpt>
      <trkpt lat="36.367140" lon="-114.899990">
        <ele>698.422</ele>
        <time>2018-12-27T22:20:02Z</time>
      </trkpt>
      <trkpt lat="36.368040" lon="-114.899440">
        <ele>696.181</ele>
        <time>2018-12-27T22:20:22Z</time>
      </trkpt>
      <trkpt lat="36.369010" lon="-114.898840">
        <ele>695.826</ele>
        <time>2018-12-27T22:20:42Z</time>
      </trkpt>
      <trkpt lat="36.369880" lon="-114.898300">
        <ele>692.694</ele>
        <time>2018-12-27T22:21:02Z</time>
      </trkpt>
      <trkpt lat="36.370460" lon="-114.897940">
        <ele>690.657</ele>
        <time>2018-12-27T22:21:22Z</time>
      </trkpt>
      <trkpt lat="36.370850" lon="-114.897700">
        <ele>690.122</ele>
        <time>2018-12-27T22:21:42Z</time>
      </trkpt>
      <trkpt lat="36.371340" lon="-114.897400">
        <ele>689.808</ele>
        <time>2018-12-27T22:22:02Z</time>
      </trkpt>
      <trkpt lat="36.371700" lon="-114.897180">
        <ele>689.532</ele>
        <time>2018-12-27T22:22:22Z</time>
      </trkpt>
      <trkpt lat="36.372500" lon="-114.896690">
        <ele>687.890</ele>
        <time>2018-12-27T22:22:42Z</time>
      </trkpt>
      <trkpt lat="36.374250" lon="-114.895610">
        <ele>684.875</ele>
        <time>2018-12-27T22:23:02Z</time>
      </trkpt>
      <trkpt lat="36.375200" lon="-114.895020">
        <ele>684.176</ele>
        <time>2018-12-27T22:23:22Z</time>
      </trkpt>
      <trkpt lat="36.375880" lon="-114.894600">
        <ele>683.870</ele>
        <time>2018-12-27T22:23:42Z</time>
      </trkpt>
      <trkpt lat="36.377220" lon="-114.893830">
        <ele>682.334</ele>
        <time>2018-12-27T22:24:02Z</time>
      </trkpt>
      <trkpt lat="36.377300" lon="-114.893790">
        <ele>681.983</ele>
        <time>2018-12-27T22:24:22Z</time>
      </trkpt>
      <trkpt lat="36.380660" lon="-114.891760">
        <ele>676.438</ele>
        <time>2018-12-27T22:24:42Z</time>
      </trkpt>
      <trkpt lat="36.380860" lon="-114.891650">
        <ele>676.627</ele>
        <time>2018-12-27T22:25:02Z</time>
      </trkpt>
      <trkpt lat="36.380880" lon="-114.891640">
        <ele>676.668</ele>
        <time>2018-12-27T22:25:22Z</time>
      </trkpt>
      <trkpt lat="36.381150" lon="-114.891490">
        <ele>676.914</ele>
        <time>2018-12-27T22:25:42Z</time>
      </trkpt>
      <trkpt lat="36.383310" lon="-114.890110">
        <ele>678.108</ele>
        <time>2018-12-27T22:26:02Z</time>
      </trkpt>
      <trkpt lat="36.383790" lon="-114.889730">
        <ele>677.915</ele>
        <time>2018-12-27T22:26:22Z</time>
      </trkpt>
      <trkpt lat="36.384040" lon="-114.889580">
        <ele>677.623</ele>
        <time>2018-12-27T22:26:42Z</time>
      </trkpt>
      <trkpt lat="36.384620" lon="-114.889220">
        <ele>676.868</ele>
        <time>2018-12-27T22:27:02Z</time>
      </trkpt>
      <trkpt lat="36.384840" lon="-114.889080">
        <ele>676.639</ele>
        <time>2018-12-27T22:27:22Z</time>
      </trkpt>
      <trkpt lat="36.386970" lon="-114.887770">
        <ele>669.583</ele>
        <time>2018-12-27T22:27:42Z</time>
      </trkpt>
      <trkpt lat="36.387560" lon="-114.887410">
        <ele>668.357</ele>
        <time>2018-12-27T22:28:02Z</time>
      </trkpt>
      <trkpt lat="36.388310" lon="-114.886950">
        <ele>666.626</ele>
        <time>2018-12-27T22:28:22Z</time>
      </trkpt>
      <trkpt lat="36.389670" lon="-114.886110">
        <ele>661.841</ele>
        <time>2018-12-27T22:28:42Z</time>
      </trkpt>
      <trkpt lat="36.390060" lon="-114.885870">
        <ele>660.438</ele>
        <time>2018-12-27T22:29:02Z</time>
      </trkpt>
      <trkpt lat="36.390260" lon="-114.885750">
        <ele>659.670</ele>
        <time>2018-12-27T22:29:22Z</time>
      </trkpt>
      <trkpt lat="36.390570" lon="-114.885560">
        <ele>658.417</ele>
        <time>2018-12-27T22:29:42Z</time>
      </trkpt>
      <trkpt lat="36.390960" lon="-114.885320">
        <ele>657.608</ele>
        <time>2018-12-27T22:30:02Z</time>
      </trkpt>
      <trkpt lat="36.391250" lon="-114.885140">
        <ele>657.316</ele>
        <time>2018-12-27T22:30:22Z</time>
      </trkpt>
      <trkpt lat="36.392110" lon="-114.884610">
        <ele>656.894</ele>
        <time>2018-12-27T22:30:42Z</time>
      </trkpt>
      <trkpt lat="36.392600" lon="-114.884310">
        <ele>655.729</ele>
        <time>2018-12-27T22:31:02Z</time>
      </trkpt>
      <trkpt lat="36.393380" lon="-114.883830">
        <ele>654.940</ele>
        <time>2018-12-27T22:31:22Z</time>
      </trkpt>
      <trkpt lat="36.394450" lon="-114.883170">
        <ele>648.024</ele>
        <time>2018-12-27T22:31:42Z</time>
      </trkpt>
      <trkpt lat="36.395510" lon="-114.882510">
        <ele>645.258</ele>
        <time>2018-12-27T22:32:02Z</time>
      </trkpt>
      <trkpt lat="36.397290" lon="-114.881410">
        <ele>641.277</ele>
        <time>2018-12-27T22:32:22Z</time>
      </trkpt>
      <trkpt lat="36.398000" lon="-114.880980">
        <ele>639.382</ele>
        <time>2018-12-27T22:32:42Z</time>
      </trkpt>
      <trkpt lat="36.398210" lon="-114.880840">
        <ele>638.514</ele>
        <time>2018-12-27T22:33:02Z</time>
      </trkpt>
      <trkpt lat="36.398670" lon="-114.880560">
        <ele>637.154</ele>
        <time>2018-12-27T22:33:22Z</time>
      </trkpt>
      <trkpt lat="36.399110" lon="-114.880300">
        <ele>636.109</ele>
        <time>2018-12-27T22:33:42Z</time>
      </trkpt>
      <trkpt lat="36.401930" lon="-114.878550">
        <ele>633.008</ele>
        <time>2018-12-27T22:34:02Z</time>
      </trkpt>
      <trkpt lat="36.403090" lon="-114.877850">
        <ele>631.474</ele>
        <time>2018-12-27T22:34:22Z</time>
      </trkpt>
      <trkpt lat="36.404250" lon="-114.877140">
        <ele>629.262</ele>
        <time>2018-12-27T22:34:42Z</time>
      </trkpt>
      <trkpt lat="36.405140" lon="-114.876590">
        <ele>628.047</ele>
        <time>2018-12-27T22:35:02Z</time>
      </trkpt>
      <trkpt lat="36.405620" lon="-114.876290">
        <ele>627.648</ele>
        <time>2018-12-27T22:35:22Z</time>
      </trkpt>
      <trkpt lat="36.406110" lon="-114.875990">
        <ele>627.142</ele>
        <time>2018-12-27T22:35:42Z</time>
      </trkpt>
      <trkpt lat="36.406790" lon="-114.875570">
        <ele>626.116</ele>
        <time>2018-12-27T22:36:02Z</time>
      </trkpt>
      <trkpt lat="36.407370" lon="-114.875200">
        <ele>625.295</ele>
        <time>2018-12-27T22:36:22Z</time>
      </trkpt>
      <trkpt lat="36.407950" lon="-114.874850">
        <ele>624.330</ele>
        <time>2018-12-27T22:36:42Z</time>
      </trkpt>
      <trkpt lat="36.408830" lon="-114.874300">
        <ele>622.913</ele>
        <time>2018-12-27T22:37:02Z</time>
      </trkpt>
      <trkpt lat="36.409950" lon="-114.873610">
        <ele>622.443</ele>
        <time>2018-12-27T22:37:22Z</time>
      </trkpt>
      <trkpt lat="36.415340" lon="-114.870280">
        <ele>616.507</ele>
        <time>2018-12-27T22:37:42Z</time>
      </trkpt>
      <trkpt lat="36.420040" lon="-114.867380">
        <ele>610.108</ele>
        <time>2018-12-27T22:38:02Z</time>
      </trkpt>
      <trkpt lat="36.422400" lon="-114.865930">
        <ele>608.254</ele>
        <time>2018-12-27T22:38:22Z</time>
      </trkpt>
      <trkpt lat="36.422890" lon="-114.865620">
        <ele>607.082</ele>
        <time>2018-12-27T22:38:42Z</time>
      </trkpt>
      <trkpt lat="36.424250" lon="-114.864770">
        <ele>604.477</ele>
        <time>2018-12-27T22:39:02Z</time>
      </trkpt>
      <trkpt lat="36.424420" lon="-114.864670">
        <ele>604.468</ele>
        <time>2018-12-27T22:39:22Z</time>
      </trkpt>
      <trkpt lat="36.425050" lon="-114.864310">
        <ele>604.432</ele>
        <time>2018-12-27T22:39:42Z</time>
      </trkpt>
      <trkpt lat="36.425540" lon="-114.864000">
        <ele>604.346</ele>
        <time>2018-12-27T22:40:02Z</time>
      </trkpt>
      <trkpt lat="36.429550" lon="-114.861530">
        <ele>604.245</ele>
        <time>2018-12-27T22:40:22Z</time>
      </trkpt>
      <trkpt lat="36.430450" lon="-114.860980">
        <ele>604.740</ele>
        <time>2018-12-27T22:40:42Z</time>
      </trkpt>
      <trkpt lat="36.431530" lon="-114.860300">
        <ele>606.855</ele>
        <time>2018-12-27T22:41:02Z</time>
      </trkpt>
      <trkpt lat="36.432020" lon="-114.859990">
        <ele>607.807</ele>
        <time>2018-12-27T22:41:22Z</time>
      </trkpt>
      <trkpt lat="36.433190" lon="-114.859270">
        <ele>609.017</ele>
        <time>2018-12-27T22:41:42Z</time>
      </trkpt>
      <trkpt lat="36.433980" lon="-114.858780">
        <ele>609.708</ele>
        <time>2018-12-27T22:42:02Z</time>
      </trkpt>
      <trkpt lat="36.434570" lon="-114.858420">
        <ele>610.398</ele>
        <time>2018-12-27T22:42:22Z</time>
      </trkpt>
      <trkpt lat="36.435750" lon="-114.857690">
        <ele>611.536</ele>
        <time>2018-12-27T22:42:42Z</time>
      </trkpt>
      <trkpt lat="36.436920" lon="-114.856970">
        <ele>611.881</ele>
        <time>2018-12-27T22:43:02Z</time>
      </trkpt>
      <trkpt lat="36.437500" lon="-114.856610">
        <ele>611.942</ele>
        <time>2018-12-27T22:43:22Z</time>
      </trkpt>
      <trkpt lat="36.437810" lon="-114.856420">
        <ele>612.466</ele>
        <time>2018-12-27T22:43:42Z</time>
      </trkpt>
      <trkpt lat="36.438190" lon="-114.856190">
        <ele>613.490</ele>
        <time>2018-12-27T22:44:02Z</time>
      </trkpt>
      <trkpt lat="36.438680" lon="-114.855880">
        <ele>615.029</ele>
        <time>2018-12-27T22:44:22Z</time>
      </trkpt>
      <trkpt lat="36.439170" lon="-114.855580">
        <ele>616.784</ele>
        <time>2018-12-27T22:44:42Z</time>
      </trkpt>
      <trkpt lat="36.439770" lon="-114.855200">
        <ele>619.027</ele>
        <time>2018-12-27T22:45:02Z</time>
      </trkpt>
      <trkpt lat="36.439870" lon="-114.855130">
        <ele>619.468</ele>
        <time>2018-12-27T22:45:22Z</time>
      </trkpt>
      <trkpt lat="36.440540" lon="-114.854670">
        <ele>622.514</ele>
        <time>2018-12-27T22:45:42Z</time>
      </trkpt>
      <trkpt lat="36.440800" lon="-114.854500">
        <ele>622.508</ele>
        <time>2018-12-27T22:46:02Z</time>
      </trkpt>
      <trkpt lat="36.441010" lon="-114.854350">
        <ele>622.645</ele>
        <time>2018-12-27T22:46:22Z</time>
      </trkpt>
      <trkpt lat="36.441470" lon="-114.854010">
        <ele>622.933</ele>
        <time>2018-12-27T22:46:42Z</time>
      </trkpt>
      <trkpt lat="36.441890" lon="-114.853690">
        <ele>623.698</ele>
        <time>2018-12-27T22:47:02Z</time>
      </trkpt>
      <trkpt lat="36.442270" lon="-114.853390">
        <ele>624.749</ele>
        <time>2018-12-27T22:47:22Z</time>
      </trkpt>
      <trkpt lat="36.442480" lon="-114.853190">
        <ele>626.893</ele>
        <time>2018-12-27T22:47:42Z</time>
      </trkpt>
      <trkpt lat="36.442850" lon="-114.852870">
        <ele>632.917</ele>
        <time>2018-12-27T22:48:02Z</time>
      </trkpt>
      <trkpt lat="36.443290" lon="-114.852470">
        <ele>634.796</ele>
        <time>2018-12-27T22:48:22Z</time>
      </trkpt>
      <trkpt lat="36.443500" lon="-114.852280">
        <ele>634.781</ele>
        <time>2018-12-27T22:48:42Z</time>
      </trkpt>
      <trkpt lat="36.443990" lon="-114.851810">
        <ele>635.088</ele>
        <time>2018-12-27T22:49:02Z</time>
      </trkpt>
      <trkpt lat="36.444360" lon="-114.851450">
        <ele>635.024</ele>
        <time>2018-12-27T22:49:22Z</time>
      </trkpt>
      <trkpt lat="36.444930" lon="-114.850870">
        <ele>636.326</ele>
        <time>2018-12-27T22:49:42Z</time>
      </trkpt>
      <trkpt lat="36.445240" lon="-114.850540">
        <ele>637.808</ele>
        <time>2018-12-27T22:50:02Z</time>
      </trkpt>
      <trkpt lat="36.445630" lon="-114.850120">
        <ele>644.611</ele>
        <time>2018-12-27T22:50:22Z</time>
      </trkpt>
      <trkpt lat="36.446740" lon="-114.848950">
        <ele>646.849</ele>
        <time>2018-12-27T22:50:42Z</time>
      </trkpt>
      <trkpt lat="36.446940" lon="-114.848750">
        <ele>646.774</ele>
        <time>2018-12-27T22:51:02Z</time>
      </trkpt>
      <trkpt lat="36.447060" lon="-114.848630">
        <ele>646.895</ele>
        <time>2018-12-27T22:51:22Z</time>
      </trkpt>
      <trkpt lat="36.447370" lon="-114.848310">
        <ele>646.959</ele>
        <time>2018-12-27T22:51:42Z</time>
      </trkpt>
      <trkpt lat="36.448210" lon="-114.847420">
        <ele>648.593</ele>
        <time>2018-12-27T22:52:02Z</time>
      </trkpt>
      <trkpt lat="36.448720" lon="-114.846900">
        <ele>648.812</ele>
        <time>2018-12-27T22:52:22Z</time>
      </trkpt>
      <trkpt lat="36.449970" lon="-114.845580">
        <ele>650.577</ele>
        <time>2018-12-27T22:52:42Z</time>
      </trkpt>
      <trkpt lat="36.450390" lon="-114.845150">
        <ele>650.747</ele>
        <time>2018-12-27T22:53:02Z</time>
      </trkpt>
      <trkpt lat="36.450580" lon="-114.844960">
        <ele>650.329</ele>
        <time>2018-12-27T22:53:22Z</time>
      </trkpt>
      <trkpt lat="36.452420" lon="-114.843040">
        <ele>649.321</ele>
        <time>2018-12-27T22:53:42Z</time>
      </trkpt>
      <trkpt lat="36.453910" lon="-114.841480">
        <ele>651.808</ele>
        <time>2018-12-27T22:54:02Z</time>
      </trkpt>
      <trkpt lat="36.454030" lon="-114.841350">
        <ele>652.097</ele>
        <time>2018-12-27T22:54:22Z</time>
      </trkpt>
      <trkpt lat="36.454680" lon="-114.840660">
        <ele>652.265</ele>
        <time>2018-12-27T22:54:42Z</time>
      </trkpt>
      <trkpt lat="36.455200" lon="-114.840120">
        <ele>651.430</ele>
        <time>2018-12-27T22:55:02Z</time>
      </trkpt>
      <trkpt lat="36.455590" lon="-114.839710">
        <ele>650.491</ele>
        <time>2018-12-27T22:55:22Z</time>
      </trkpt>
      <trkpt lat="36.456520" lon="-114.838740">
        <ele>651.155</ele>
        <time>2018-12-27T22:55:42Z</time>
      </trkpt>
      <trkpt lat="36.456780" lon="-114.838470">
        <ele>650.769</ele>
        <time>2018-12-27T22:56:02Z</time>
      </trkpt>
      <trkpt lat="36.457290" lon="-114.837940">
        <ele>651.078</ele>
        <time>2018-12-27T22:56:22Z</time>
      </trkpt>
      <trkpt lat="36.457700" lon="-114.837500">
        <ele>651.683</ele>
        <time>2018-12-27T22:56:42Z</time>
      </trkpt>
      <trkpt lat="36.458460" lon="-114.836710">
        <ele>654.071</ele>
        <time>2018-12-27T22:57:02Z</time>
      </trkpt>
      <trkpt lat="36.459390" lon="-114.835740">
        <ele>657.741</ele>
        <time>2018-12-27T22:57:22Z</time>
      </trkpt>
      <trkpt lat="36.460540" lon="-114.834540">
        <ele>664.315</ele>
        <time>2018-12-27T22:57:42Z</time>
      </trkpt>
      <trkpt lat="36.462070" lon="-114.832960">
        <ele>666.608</ele>
        <time>2018-12-27T22:58:02Z</time>
      </trkpt>
      <trkpt lat="36.462480" lon="-114.832530">
        <ele>666.710</ele>
        <time>2018-12-27T22:58:22Z</time>
      </trkpt>
      <trkpt lat="36.463920" lon="-114.831020">
        <ele>667.218</ele>
        <time>2018-12-27T22:58:42Z</time>
      </trkpt>
      <trkpt lat="36.464500" lon="-114.830420">
        <ele>664.513</ele>
        <time>2018-12-27T22:59:02Z</time>
      </trkpt>
      <trkpt lat="36.465580" lon="-114.829290">
        <ele>659.514</ele>
        <time>2018-12-27T22:59:22Z</time>
      </trkpt>
      <trkpt lat="36.466260" lon="-114.828590">
        <ele>660.278</ele>
        <time>2018-12-27T22:59:42Z</time>
      </trkpt>
      <trkpt lat="36.466930" lon="-114.827890">
        <ele>659.172</ele>
        <time>2018-12-27T23:00:02Z</time>
      </trkpt>
      <trkpt lat="36.467340" lon="-114.827440">
        <ele>659.131</ele>
        <time>2018-12-27T23:00:22Z</time>
      </trkpt>
      <trkpt lat="36.468150" lon="-114.826530">
        <ele>657.996</ele>
        <time>2018-12-27T23:00:42Z</time>
      </trkpt>
      <trkpt lat="36.468620" lon="-114.825960">
        <ele>657.735</ele>
        <time>2018-12-27T23:01:02Z</time>
      </trkpt>
      <trkpt lat="36.469010" lon="-114.825480">
        <ele>656.986</ele>
        <time>2018-12-27T23:01:22Z</time>
      </trkpt>
      <trkpt lat="36.469460" lon="-114.824890">
        <ele>656.114</ele>
        <time>2018-12-27T23:01:42Z</time>
      </trkpt>
      <trkpt lat="36.469750" lon="-114.824490">
        <ele>655.208</ele>
        <time>2018-12-27T23:02:02Z</time>
      </trkpt>
      <trkpt lat="36.469970" lon="-114.824180">
        <ele>653.416</ele>
        <time>2018-12-27T23:02:22Z</time>
      </trkpt>
      <trkpt lat="36.470260" lon="-114.823750">
        <ele>649.354</ele>
        <time>2018-12-27T23:02:42Z</time>
      </trkpt>
      <trkpt lat="36.470540" lon="-114.823330">
        <ele>646.189</ele>
        <time>2018-12-27T23:03:02Z</time>
      </trkpt>
      <trkpt lat="36.470740" lon="-114.823030">
        <ele>646.960</ele>
        <time>2018-12-27T23:03:22Z</time>
      </trkpt>
      <trkpt lat="36.471020" lon="-114.822580">
        <ele>644.524</ele>
        <time>2018-12-27T23:03:42Z</time>
      </trkpt>
      <trkpt lat="36.471220" lon="-114.822260">
        <ele>642.438</ele>
        <time>2018-12-27T23:04:02Z</time>
      </trkpt>
      <trkpt lat="36.471420" lon="-114.821930">
        <ele>640.767</ele>
        <time>2018-12-27T23:04:22Z</time>
      </trkpt>
      <trkpt lat="36.471920" lon="-114.821040">
        <ele>638.242</ele>
        <time>2018-12-27T23:04:42Z</time>
      </trkpt>
      <trkpt lat="36.472030" lon="-114.820850">
        <ele>637.988</ele>
        <time>2018-12-27T23:05:02Z</time>
      </trkpt>
      <trkpt lat="36.472050" lon="-114.820800">
        <ele>637.824</ele>
        <time>2018-12-27T23:05:22Z</time>
      </trkpt>
      <trkpt lat="36.472190" lon="-114.820550">
        <ele>637.726</ele>
        <time>2018-12-27T23:05:42Z</time>
      </trkpt>
      <trkpt lat="36.476250" lon="-114.812570">
        <ele>648.108</ele>
        <time>2018-12-27T23:06:02Z</time>
      </trkpt>
      <trkpt lat="36.477300" lon="-114.810480">
        <ele>646.131</ele>
        <time>2018-12-27T23:06:22Z</time>
      </trkpt>
      <trkpt lat="36.477590" lon="-114.809910">
        <ele>645.769</ele>
        <time>2018-12-27T23:06:42Z</time>
      </trkpt>
      <trkpt lat="36.477690" lon="-114.809710">
        <ele>645.644</ele>
        <time>2018-12-27T23:07:02Z</time>
      </trkpt>
      <trkpt lat="36.478000" lon="-114.809080">
        <ele>645.165</ele>
        <time>2018-12-27T23:07:22Z</time>
      </trkpt>
      <trkpt lat="36.478240" lon="-114.808620">
        <ele>644.189</ele>
        <time>2018-12-27T23:07:42Z</time>
      </trkpt>
      <trkpt lat="36.479640" lon="-114.805870">
        <ele>638.693</ele>
        <time>2018-12-27T23:08:02Z</time>
      </trkpt>
      <trkpt lat="36.480690" lon="-114.803800">
        <ele>635.572</ele>
        <time>2018-12-27T23:08:22Z</time>
      </trkpt>
      <trkpt lat="36.481330" lon="-114.802540">
        <ele>634.727</ele>
        <time>2018-12-27T23:08:42Z</time>
      </trkpt>
      <trkpt lat="36.482260" lon="-114.800690">
        <ele>632.148</ele>
        <time>2018-12-27T23:09:02Z</time>
      </trkpt>
      <trkpt lat="36.483510" lon="-114.798240">
        <ele>629.561</ele>
        <time>2018-12-27T23:09:22Z</time>
      </trkpt>
      <trkpt lat="36.489670" lon="-114.786080">
        <ele>628.617</ele>
        <time>2018-12-27T23:09:42Z</time>
      </trkpt>
      <trkpt lat="36.490840" lon="-114.783780">
        <ele>626.808</ele>
        <time>2018-12-27T23:10:02Z</time>
      </trkpt>
      <trkpt lat="36.493410" lon="-114.778690">
        <ele>623.597</ele>
        <time>2018-12-27T23:10:22Z</time>
      </trkpt>
      <trkpt lat="36.493750" lon="-114.778030">
        <ele>623.465</ele>
        <time>2018-12-27T23:10:42Z</time>
      </trkpt>
      <trkpt lat="36.494100" lon="-114.777330">
        <ele>623.450</ele>
        <time>2018-12-27T23:11:02Z</time>
      </trkpt>
      <trkpt lat="36.494510" lon="-114.776530">
        <ele>623.011</ele>
        <time>2018-12-27T23:11:22Z</time>
      </trkpt>
      <trkpt lat="36.495210" lon="-114.775140">
        <ele>622.515</ele>
        <time>2018-12-27T23:11:42Z</time>
      </trkpt>
      <trkpt lat="36.495910" lon="-114.773750">
        <ele>620.539</ele>
        <time>2018-12-27T23:12:02Z</time>
      </trkpt>
      <trkpt lat="36.496400" lon="-114.772790">
        <ele>619.758</ele>
        <time>2018-12-27T23:12:22Z</time>
      </trkpt>
      <trkpt lat="36.498960" lon="-114.767730">
        <ele>616.933</ele>
        <time>2018-12-27T23:12:42Z</time>
      </trkpt>
      <trkpt lat="36.499150" lon="-114.767350">
        <ele>617.071</ele>
        <time>2018-12-27T23:13:02Z</time>
      </trkpt>
      <trkpt lat="36.499360" lon="-114.766940">
        <ele>617.141</ele>
        <time>2018-12-27T23:13:22Z</time>
      </trkpt>
      <trkpt lat="36.499950" lon="-114.765790">
        <ele>618.015</ele>
        <time>2018-12-27T23:13:42Z</time>
      </trkpt>
      <trkpt lat="36.500610" lon="-114.764480">
        <ele>618.208</ele>
        <time>2018-12-27T23:14:02Z</time>
      </trkpt>
      <trkpt lat="36.501160" lon="-114.763370">
        <ele>616.980</ele>
        <time>2018-12-27T23:14:22Z</time>
      </trkpt>
      <trkpt lat="36.501480" lon="-114.762760">
        <ele>616.858</ele>
        <time>2018-12-27T23:14:42Z</time>
      </trkpt>
      <trkpt lat="36.501830" lon="-114.762040">
        <ele>614.963</ele>
        <time>2018-12-27T23:15:02Z</time>
      </trkpt>
      <trkpt lat="36.502130" lon="-114.761450">
        <ele>614.154</ele>
        <time>2018-12-27T23:15:22Z</time>
      </trkpt>
      <trkpt lat="36.503320" lon="-114.759120">
        <ele>615.238</ele>
        <time>2018-12-27T23:15:42Z</time>
      </trkpt>
      <trkpt lat="36.503760" lon="-114.758250">
        <ele>615.082</ele>
        <time>2018-12-27T23:16:02Z</time>
      </trkpt>
      <trkpt lat="36.504140" lon="-114.757490">
        <ele>614.061</ele>
        <time>2018-12-27T23:16:22Z</time>
      </trkpt>
      <trkpt lat="36.504500" lon="-114.756800">
        <ele>614.656</ele>
        <time>2018-12-27T23:16:42Z</time>
      </trkpt>
      <trkpt lat="36.504680" lon="-114.756470">
        <ele>614.683</ele>
        <time>2018-12-27T23:17:02Z</time>
      </trkpt>
      <trkpt lat="36.504930" lon="-114.756020">
        <ele>614.225</ele>
        <time>2018-12-27T23:17:22Z</time>
      </trkpt>
      <trkpt lat="36.505240" lon="-114.755450">
        <ele>613.317</ele>
        <time>2018-12-27T23:17:42Z</time>
      </trkpt>
      <trkpt lat="36.505430" lon="-114.755150">
        <ele>613.608</ele>
        <time>2018-12-27T23:18:02Z</time>
      </trkpt>
      <trkpt lat="36.505510" lon="-114.755020">
        <ele>613.941</ele>
        <time>2018-12-27T23:18:22Z</time>
      </trkpt>
      <trkpt lat="36.505840" lon="-114.754500">
        <ele>615.299</ele>
        <time>2018-12-27T23:18:42Z</time>
      </trkpt>
      <trkpt lat="36.505910" lon="-114.754380">
        <ele>615.534</ele>
        <time>2018-12-27T23:19:02Z</time>
      </trkpt>
      <trkpt lat="36.506040" lon="-114.754180">
        <ele>616.095</ele>
        <time>2018-12-27T23:19:22Z</time>
      </trkpt>
      <trkpt lat="36.506540" lon="-114.753440">
        <ele>619.719</ele>
        <time>2018-12-27T23:19:42Z</time>
      </trkpt>
      <trkpt lat="36.506890" lon="-114.752960">
        <ele>622.513</ele>
        <time>2018-12-27T23:20:02Z</time>
      </trkpt>
      <trkpt lat="36.507420" lon="-114.752220">
        <ele>623.292</ele>
        <time>2018-12-27T23:20:22Z</time>
      </trkpt>
      <trkpt lat="36.507710" lon="-114.751860">
        <ele>624.277</ele>
        <time>2018-12-27T23:20:42Z</time>
      </trkpt>
      <trkpt lat="36.508170" lon="-114.751280">
        <ele>625.177</ele>
        <time>2018-12-27T23:21:02Z</time>
      </trkpt>
      <trkpt lat="36.509670" lon="-114.749490">
        <ele>621.361</ele>
        <time>2018-12-27T23:21:22Z</time>
      </trkpt>
      <trkpt lat="36.513070" lon="-114.745410">
        <ele>619.527</ele>
        <time>2018-12-27T23:21:42Z</time>
      </trkpt>
      <trkpt lat="36.514650" lon="-114.743520">
        <ele>615.108</ele>
        <time>2018-12-27T23:22:02Z</time>
      </trkpt>
      <trkpt lat="36.518120" lon="-114.739350">
        <ele>607.180</ele>
        <time>2018-12-27T23:22:22Z</time>
      </trkpt>
      <trkpt lat="36.518680" lon="-114.738690">
        <ele>606.048</ele>
        <time>2018-12-27T23:22:42Z</time>
      </trkpt>
      <trkpt lat="36.519150" lon="-114.738130">
        <ele>605.593</ele>
        <time>2018-12-27T23:23:02Z</time>
      </trkpt>
      <trkpt lat="36.519460" lon="-114.737750">
        <ele>604.984</ele>
        <time>2018-12-27T23:23:22Z</time>
      </trkpt>
      <trkpt lat="36.519860" lon="-114.737270">
        <ele>604.138</ele>
        <time>2018-12-27T23:23:42Z</time>
      </trkpt>
      <trkpt lat="36.520400" lon="-114.736620">
        <ele>603.892</ele>
        <time>2018-12-27T23:24:02Z</time>
      </trkpt>
      <trkpt lat="36.520730" lon="-114.736230">
        <ele>603.761</ele>
        <time>2018-12-27T23:24:22Z</time>
      </trkpt>
      <trkpt lat="36.521040" lon="-114.735860">
        <ele>603.836</ele>
        <time>2018-12-27T23:24:42Z</time>
      </trkpt>
      <trkpt lat="36.521520" lon="-114.735280">
        <ele>603.386</ele>
        <time>2018-12-27T23:25:02Z</time>
      </trkpt>
      <trkpt lat="36.521990" lon="-114.734720">
        <ele>601.760</ele>
        <time>2018-12-27T23:25:22Z</time>
      </trkpt>
      <trkpt lat="36.522150" lon="-114.734530">
        <ele>601.326</ele>
        <time>2018-12-27T23:25:42Z</time>
      </trkpt>
      <trkpt lat="36.522630" lon="-114.733960">
        <ele>600.808</ele>
        <time>2018-12-27T23:26:02Z</time>
      </trkpt>
      <trkpt lat="36.523420" lon="-114.733010">
        <ele>600.281</ele>
        <time>2018-12-27T23:26:22Z</time>
      </trkpt>
      <trkpt lat="36.524600" lon="-114.731600">
        <ele>595.839</ele>
        <time>2018-12-27T23:26:42Z</time>
      </trkpt>
      <trkpt lat="36.526120" lon="-114.729780">
        <ele>594.194</ele>
        <time>2018-12-27T23:27:02Z</time>
      </trkpt>
      <trkpt lat="36.526890" lon="-114.728860">
        <ele>592.855</ele>
        <time>2018-12-27T23:27:22Z</time>
      </trkpt>
      <trkpt lat="36.527290" lon="-114.728380">
        <ele>591.759</ele>
        <time>2018-12-27T23:27:42Z</time>
      </trkpt>
      <trkpt lat="36.527830" lon="-114.727720">
        <ele>590.993</ele>
        <time>2018-12-27T23:28:02Z</time>
      </trkpt>
      <trkpt lat="36.528550" lon="-114.726870">
        <ele>590.892</ele>
        <time>2018-12-27T23:28:22Z</time>
      </trkpt>
      <trkpt lat="36.529020" lon="-114.726310">
        <ele>590.697</ele>
        <time>2018-12-27T23:28:42Z</time>
      </trkpt>
      <trkpt lat="36.529500" lon="-114.725730">
        <ele>589.757</ele>
        <time>2018-12-27T23:29:02Z</time>
      </trkpt>
      <trkpt lat="36.530130" lon="-114.724980">
        <ele>589.100</ele>
        <time>2018-12-27T23:29:22Z</time>
      </trkpt>
      <trkpt lat="36.530750" lon="-114.724230">
        <ele>589.320</ele>
        <time>2018-12-27T23:29:42Z</time>
      </trkpt>
      <trkpt lat="36.531060" lon="-114.723850">
        <ele>589.208</ele>
        <time>2018-12-27T23:30:02Z</time>
      </trkpt>
      <trkpt lat="36.531300" lon="-114.723560">
        <ele>589.088</ele>
        <time>2018-12-27T23:30:22Z</time>
      </trkpt>
      <trkpt lat="36.531380" lon="-114.723480">
        <ele>588.956</ele>
        <time>2018-12-27T23:30:42Z</time>
      </trkpt>
      <trkpt lat="36.531460" lon="-114.723370">
        <ele>589.041</ele>
        <time>2018-12-27T23:31:02Z</time>
      </trkpt>
      <trkpt lat="36.531860" lon="-114.722900">
        <ele>589.052</ele>
        <time>2018-12-27T23:31:22Z</time>
      </trkpt>
      <trkpt lat="36.532170" lon="-114.722530">
        <ele>589.096</ele>
        <time>2018-12-27T23:31:42Z</time>
      </trkpt>
      <trkpt lat="36.532800" lon="-114.721770">
        <ele>588.320</ele>
        <time>2018-12-27T23:32:02Z</time>
      </trkpt>
      <trkpt lat="36.533510" lon="-114.720910">
        <ele>588.039</ele>
        <time>2018-12-27T23:32:22Z</time>
      </trkpt>
      <trkpt lat="36.534380" lon="-114.719870">
        <ele>586.484</ele>
        <time>2018-12-27T23:32:42Z</time>
      </trkpt>
      <trkpt lat="36.535010" lon="-114.719120">
        <ele>585.327</ele>
        <time>2018-12-27T23:33:02Z</time>
      </trkpt>
      <trkpt lat="36.536120" lon="-114.717790">
        <ele>584.368</ele>
        <time>2018-12-27T23:33:22Z</time>
      </trkpt>
      <trkpt lat="36.537540" lon="-114.716090">
        <ele>580.714</ele>
        <time>2018-12-27T23:33:42Z</time>
      </trkpt>
      <trkpt lat="36.538850" lon="-114.714520">
        <ele>577.908</ele>
        <time>2018-12-27T23:34:02Z</time>
      </trkpt>
      <trkpt lat="36.539190" lon="-114.714110">
        <ele>577.575</ele>
        <time>2018-12-27T23:34:22Z</time>
      </trkpt>
      <trkpt lat="36.539420" lon="-114.713830">
        <ele>577.583</ele>
        <time>2018-12-27T23:34:42Z</time>
      </trkpt>
      <trkpt lat="36.539800" lon="-114.713380">
        <ele>577.858</ele>
        <time>2018-12-27T23:35:02Z</time>
      </trkpt>
      <trkpt lat="36.540210" lon="-114.712900">
        <ele>579.039</ele>
        <time>2018-12-27T23:35:22Z</time>
      </trkpt>
      <trkpt lat="36.540550" lon="-114.712460">
        <ele>579.593</ele>
        <time>2018-12-27T23:35:42Z</time>
      </trkpt>
      <trkpt lat="36.540910" lon="-114.711980">
        <ele>579.537</ele>
        <time>2018-12-27T23:36:02Z</time>
      </trkpt>
      <trkpt lat="36.541300" lon="-114.711450">
        <ele>579.796</ele>
        <time>2018-12-27T23:36:22Z</time>
      </trkpt>
      <trkpt lat="36.542030" lon="-114.710420">
        <ele>579.621</ele>
        <time>2018-12-27T23:36:42Z</time>
      </trkpt>
      <trkpt lat="36.542380" lon="-114.709920">
        <ele>577.825</ele>
        <time>2018-12-27T23:37:02Z</time>
      </trkpt>
      <trkpt lat="36.542490" lon="-114.709760">
        <ele>575.726</ele>
        <time>2018-12-27T23:37:22Z</time>
      </trkpt>
      <trkpt lat="36.542760" lon="-114.709370">
        <ele>570.708</ele>
        <time>2018-12-27T23:37:42Z</time>
      </trkpt>
      <trkpt lat="36.542900" lon="-114.709180">
        <ele>570.708</ele>
        <time>2018-12-27T23:38:02Z</time>
      </trkpt>
      <trkpt lat="36.543220" lon="-114.708720">
        <ele>570.665</ele>
        <time>2018-12-27T23:38:22Z</time>
      </trkpt>
      <trkpt lat="36.544100" lon="-114.707470">
        <ele>570.293</ele>
        <time>2018-12-27T23:38:42Z</time>
      </trkpt>
      <trkpt lat="36.544870" lon="-114.706380">
        <ele>570.428</ele>
        <time>2018-12-27T23:39:02Z</time>
      </trkpt>
      <trkpt lat="36.545670" lon="-114.705250">
        <ele>570.399</ele>
        <time>2018-12-27T23:39:22Z</time>
      </trkpt>
      <trkpt lat="36.546330" lon="-114.704310">
        <ele>569.823</ele>
        <time>2018-12-27T23:39:42Z</time>
      </trkpt>
      <trkpt lat="36.546550" lon="-114.704000">
        <ele>569.717</ele>
        <time>2018-12-27T23:40:02Z</time>
      </trkpt>
      <trkpt lat="36.546870" lon="-114.703530">
        <ele>569.416</ele>
        <time>2018-12-27T23:40:22Z</time>
      </trkpt>
      <trkpt lat="36.547030" lon="-114.703310">
        <ele>569.531</ele>
        <time>2018-12-27T23:40:42Z</time>
      </trkpt>
      <trkpt lat="36.547160" lon="-114.703130">
        <ele>569.364</ele>
        <time>2018-12-27T23:41:02Z</time>
      </trkpt>
      <trkpt lat="36.547640" lon="-114.702460">
        <ele>569.006</ele>
        <time>2018-12-27T23:41:22Z</time>
      </trkpt>
      <trkpt lat="36.548200" lon="-114.701640">
        <ele>568.416</ele>
        <time>2018-12-27T23:41:42Z</time>
      </trkpt>
      <trkpt lat="36.549150" lon="-114.700300">
        <ele>567.208</ele>
        <time>2018-12-27T23:42:02Z</time>
      </trkpt>
      <trkpt lat="36.549340" lon="-114.700050">
        <ele>566.959</ele>
        <time>2018-12-27T23:42:22Z</time>
      </trkpt>
      <trkpt lat="36.549820" lon="-114.699340">
        <ele>566.687</ele>
        <time>2018-12-27T23:42:42Z</time>
      </trkpt>
      <trkpt lat="36.550430" lon="-114.698490">
        <ele>567.192</ele>
        <time>2018-12-27T23:43:02Z</time>
      </trkpt>
      <trkpt lat="36.550590" lon="-114.698260">
        <ele>567.353</ele>
        <time>2018-12-27T23:43:22Z</time>
      </trkpt>
      <trkpt lat="36.550830" lon="-114.697930">
        <ele>567.737</ele>
        <time>2018-12-27T23:43:42Z</time>
      </trkpt>
      <trkpt lat="36.552510" lon="-114.695540">
        <ele>563.551</ele>
        <time>2018-12-27T23:44:02Z</time>
      </trkpt>
      <trkpt lat="36.552690" lon="-114.695290">
        <ele>563.040</ele>
        <time>2018-12-27T23:44:22Z</time>
      </trkpt>
      <trkpt lat="36.552700" lon="-114.695280">
        <ele>563.085</ele>
        <time>2018-12-27T23:44:42Z</time>
      </trkpt>
      <trkpt lat="36.552890" lon="-114.695020">
        <ele>562.418</ele>
        <time>2018-12-27T23:45:02Z</time>
      </trkpt>
      <trkpt lat="36.554460" lon="-114.692780">
        <ele>560.698</ele>
        <time>2018-12-27T23:45:22Z</time>
      </trkpt>
      <trkpt lat="36.554900" lon="-114.692160">
        <ele>559.917</ele>
        <time>2018-12-27T23:45:42Z</time>
      </trkpt>
      <trkpt lat="36.555500" lon="-114.691320">
        <ele>559.508</ele>
        <time>2018-12-27T23:46:02Z</time>
      </trkpt>
      <trkpt lat="36.556780" lon="-114.689500">
        <ele>558.974</ele>
        <time>2018-12-27T23:46:22Z</time>
      </trkpt>
      <trkpt lat="36.558070" lon="-114.687670">
        <ele>556.952</ele>
        <time>2018-12-27T23:46:42Z</time>
      </trkpt>
      <trkpt lat="36.559020" lon="-114.686320">
        <ele>555.597</ele>
        <time>2018-12-27T23:47:02Z</time>
      </trkpt>
      <trkpt lat="36.560640" lon="-114.684020">
        <ele>555.338</ele>
        <time>2018-12-27T23:47:22Z</time>
      </trkpt>
      <trkpt lat="36.561600" lon="-114.682670">
        <ele>555.042</ele>
        <time>2018-12-27T23:47:42Z</time>
      </trkpt>
      <trkpt lat="36.561900" lon="-114.682240">
        <ele>555.156</ele>
        <time>2018-12-27T23:48:02Z</time>
      </trkpt>
      <trkpt lat="36.564400" lon="-114.678690">
        <ele>556.145</ele>
        <time>2018-12-27T23:48:22Z</time>
      </trkpt>
      <trkpt lat="36.565210" lon="-114.677550">
        <ele>559.320</ele>
        <time>2018-12-27T23:48:42Z</time>
      </trkpt>
      <trkpt lat="36.566620" lon="-114.675540">
        <ele>557.654</ele>
        <time>2018-12-27T23:49:02Z</time>
      </trkpt>
      <trkpt lat="36.567670" lon="-114.674030">
        <ele>561.656</ele>
        <time>2018-12-27T23:49:22Z</time>
      </trkpt>
      <trkpt lat="36.568000" lon="-114.673590">
        <ele>567.711</ele>
        <time>2018-12-27T23:49:42Z</time>
      </trkpt>
      <trkpt lat="36.569150" lon="-114.671940">
        <ele>570.708</ele>
        <time>2018-12-27T23:50:02Z</time>
      </trkpt>
      <trkpt lat="36.569740" lon="-114.671100">
        <ele>572.858</ele>
        <time>2018-12-27T23:50:22Z</time>
      </trkpt>
      <trkpt lat="36.570800" lon="-114.669590">
        <ele>575.466</ele>
        <time>2018-12-27T23:50:42Z</time>
      </trkpt>
      <trkpt lat="36.571880" lon="-114.668060">
        <ele>576.051</ele>
        <time>2018-12-27T23:51:02Z</time>
      </trkpt>
      <trkpt lat="36.573050" lon="-114.666390">
        <ele>576.832</ele>
        <time>2018-12-27T23:51:22Z</time>
      </trkpt>
      <trkpt lat="36.574200" lon="-114.664770">
        <ele>576.886</ele>
        <time>2018-12-27T23:51:42Z</time>
      </trkpt>
      <trkpt lat="36.574790" lon="-114.663930">
        <ele>576.630</ele>
        <time>2018-12-27T23:52:02Z</time>
      </trkpt>
      <trkpt lat="36.575440" lon="-114.663010">
        <ele>575.669</ele>
        <time>2018-12-27T23:52:22Z</time>
      </trkpt>
      <trkpt lat="36.576490" lon="-114.661500">
        <ele>571.434</ele>
        <time>2018-12-27T23:52:42Z</time>
      </trkpt>
      <trkpt lat="36.577250" lon="-114.660420">
        <ele>570.823</ele>
        <time>2018-12-27T23:53:02Z</time>
      </trkpt>
      <trkpt lat="36.578310" lon="-114.658920">
        <ele>572.183</ele>
        <time>2018-12-27T23:53:22Z</time>
      </trkpt>
      <trkpt lat="36.578530" lon="-114.658620">
        <ele>572.211</ele>
        <time>2018-12-27T23:53:42Z</time>
      </trkpt>
      <trkpt lat="36.579040" lon="-114.657900">
        <ele>572.208</ele>
        <time>2018-12-27T23:54:02Z</time>
      </trkpt>
      <trkpt lat="36.579540" lon="-114.657210">
        <ele>572.455</ele>
        <time>2018-12-27T23:54:22Z</time>
      </trkpt>
      <trkpt lat="36.579880" lon="-114.656760">
        <ele>572.573</ele>
        <time>2018-12-27T23:54:42Z</time>
      </trkpt>
      <trkpt lat="36.579990" lon="-114.656610">
        <ele>572.338</ele>
        <time>2018-12-27T23:55:02Z</time>
      </trkpt>
      <trkpt lat="36.580130" lon="-114.656440">
        <ele>572.289</ele>
        <time>2018-12-27T23:55:22Z</time>
      </trkpt>
      <trkpt lat="36.580480" lon="-114.656010">
        <ele>571.843</ele>
        <time>2018-12-27T23:55:42Z</time>
      </trkpt>
      <trkpt lat="36.580870" lon="-114.655540">
        <ele>571.627</ele>
        <time>2018-12-27T23:56:02Z</time>
      </trkpt>
      <trkpt lat="36.581430" lon="-114.654900">
        <ele>571.736</ele>
        <time>2018-12-27T23:56:22Z</time>
      </trkpt>
      <trkpt lat="36.582080" lon="-114.654200">
        <ele>570.631</ele>
        <time>2018-12-27T23:56:42Z</time>
      </trkpt>
      <trkpt lat="36.582630" lon="-114.653660">
        <ele>570.364</ele>
        <time>2018-12-27T23:57:02Z</time>
      </trkpt>
      <trkpt lat="36.583560" lon="-114.652770">
        <ele>570.406</ele>
        <time>2018-12-27T23:57:22Z</time>
      </trkpt>
      <trkpt lat="36.583910" lon="-114.652460">
        <ele>570.516</ele>
        <time>2018-12-27T23:57:42Z</time>
      </trkpt>
      <trkpt lat="36.584350" lon="-114.652100">
        <ele>571.708</ele>
        <time>2018-12-27T23:58:02Z</time>
      </trkpt>
      <trkpt lat="36.584810" lon="-114.651730">
        <ele>572.339</ele>
        <time>2018-12-27T23:58:22Z</time>
      </trkpt>
      <trkpt lat="36.586130" lon="-114.650700">
        <ele>571.027</ele>
        <time>2018-12-27T23:58:42Z</time>
      </trkpt>
      <trkpt lat="36.586580" lon="-114.650350">
        <ele>570.522</ele>
        <time>2018-12-27T23:59:02Z</time>
      </trkpt>
      <trkpt lat="36.587000" lon="-114.650030">
        <ele>570.143</ele>
        <time>2018-12-27T23:59:22Z</time>
      </trkpt>
      <trkpt lat="36.587260" lon="-114.649830">
        <ele>570.287</ele>
        <time>2018-12-27T23:59:42Z</time>
      </trkpt>
      <trkpt lat="36.589680" lon="-114.647960">
        <ele>567.471</ele>
        <time>2018-12-28T00:00:02Z</time>
      </trkpt>
      <trkpt lat="36.589970" lon="-114.647740">
        <ele>566.970</ele>
        <time>2018-12-28T00:00:22Z</time>
      </trkpt>
      <trkpt lat="36.590040" lon="-114.647690">
        <ele>566.875</ele>
        <time>2018-12-28T00:00:42Z</time>
      </trkpt>
      <trkpt lat="36.590910" lon="-114.647020">
        <ele>565.785</ele>
        <time>2018-12-28T00:01:02Z</time>
      </trkpt>
      <trkpt lat="36.590940" lon="-114.646990">
        <ele>565.789</ele>
        <time>2018-12-28T00:01:22Z</time>
      </trkpt>
      <trkpt lat="36.592300" lon="-114.645950">
        <ele>561.917</ele>
        <time>2018-12-28T00:01:42Z</time>
      </trkpt>
      <trkpt lat="36.592810" lon="-114.645560">
        <ele>561.808</ele>
        <time>2018-12-28T00:02:02Z</time>
      </trkpt>
      <trkpt lat="36.593230" lon="-114.645240">
        <ele>561.751</ele>
        <time>2018-12-28T00:02:22Z</time>
      </trkpt>
      <trkpt lat="36.593620" lon="-114.644940">
        <ele>561.699</ele>
        <time>2018-12-28T00:02:42Z</time>
      </trkpt>
      <trkpt lat="36.594190" lon="-114.644500">
        <ele>561.744</ele>
        <time>2018-12-28T00:03:02Z</time>
      </trkpt>
      <trkpt lat="36.595190" lon="-114.643740">
        <ele>562.165</ele>
        <time>2018-12-28T00:03:22Z</time>
      </trkpt>
      <trkpt lat="36.595680" lon="-114.643360">
        <ele>562.979</ele>
        <time>2018-12-28T00:03:42Z</time>
      </trkpt>
      <trkpt lat="36.596180" lon="-114.642980">
        <ele>564.723</ele>
        <time>2018-12-28T00:04:02Z</time>
      </trkpt>
      <trkpt lat="36.596610" lon="-114.642660">
        <ele>567.712</ele>
        <time>2018-12-28T00:04:22Z</time>
      </trkpt>
      <trkpt lat="36.597010" lon="-114.642350">
        <ele>569.127</ele>
        <time>2018-12-28T00:04:42Z</time>
      </trkpt>
      <trkpt lat="36.598270" lon="-114.641360">
        <ele>562.313</ele>
        <time>2018-12-28T00:05:02Z</time>
      </trkpt>
      <trkpt lat="36.598890" lon="-114.640870">
        <ele>562.043</ele>
        <time>2018-12-28T00:05:22Z</time>
      </trkpt>
      <trkpt lat="36.599860" lon="-114.640050">
        <ele>565.807</ele>
        <time>2018-12-28T00:05:42Z</time>
      </trkpt>
      <trkpt lat="36.600350" lon="-114.639610">
        <ele>565.308</ele>
        <time>2018-12-28T00:06:02Z</time>
      </trkpt>
      <trkpt lat="36.600590" lon="-114.639380">
        <ele>564.214</ele>
        <time>2018-12-28T00:06:22Z</time>
      </trkpt>
      <trkpt lat="36.600880" lon="-114.639100">
        <ele>563.672</ele>
        <time>2018-12-28T00:06:42Z</time>
      </trkpt>
      <trkpt lat="36.601350" lon="-114.638620">
        <ele>560.297</ele>
        <time>2018-12-28T00:07:02Z</time>
      </trkpt>
      <trkpt lat="36.601650" lon="-114.638310">
        <ele>559.458</ele>
        <time>2018-12-28T00:07:22Z</time>
      </trkpt>
      <trkpt lat="36.602280" lon="-114.637630">
        <ele>559.742</ele>
        <time>2018-12-28T00:07:42Z</time>
      </trkpt>
      <trkpt lat="36.603400" lon="-114.636370">
        <ele>555.876</ele>
        <time>2018-12-28T00:08:02Z</time>
      </trkpt>
      <trkpt lat="36.604170" lon="-114.635530">
        <ele>554.955</ele>
        <time>2018-12-28T00:08:22Z</time>
      </trkpt>
      <trkpt lat="36.604800" lon="-114.634820">
        <ele>551.430</ele>
        <time>2018-12-28T00:08:42Z</time>
      </trkpt>
      <trkpt lat="36.605490" lon="-114.634050">
        <ele>550.264</ele>
        <time>2018-12-28T00:09:02Z</time>
      </trkpt>
      <trkpt lat="36.607640" lon="-114.631640">
        <ele>545.406</ele>
        <time>2018-12-28T00:09:22Z</time>
      </trkpt>
      <trkpt lat="36.608060" lon="-114.631170">
        <ele>544.316</ele>
        <time>2018-12-28T00:09:42Z</time>
      </trkpt>
      <trkpt lat="36.608240" lon="-114.630970">
        <ele>544.608</ele>
        <time>2018-12-28T00:10:02Z</time>
      </trkpt>
      <trkpt lat="36.608830" lon="-114.630330">
        <ele>550.449</ele>
        <time>2018-12-28T00:10:22Z</time>
      </trkpt>
      <trkpt lat="36.609400" lon="-114.629690">
        <ele>549.547</ele>
        <time>2018-12-28T00:10:42Z</time>
      </trkpt>
      <trkpt lat="36.610210" lon="-114.628790">
        <ele>550.642</ele>
        <time>2018-12-28T00:11:02Z</time>
      </trkpt>
      <trkpt lat="36.611180" lon="-114.627710">
        <ele>549.323</ele>
        <time>2018-12-28T00:11:22Z</time>
      </trkpt>
      <trkpt lat="36.612840" lon="-114.625850">
        <ele>548.647</ele>
        <time>2018-12-28T00:11:42Z</time>
      </trkpt>
      <trkpt lat="36.613220" lon="-114.625400">
        <ele>543.291</ele>
        <time>2018-12-28T00:12:02Z</time>
      </trkpt>
      <trkpt lat="36.613800" lon="-114.624750">
        <ele>543.240</ele>
        <time>2018-12-28T00:12:22Z</time>
      </trkpt>
      <trkpt lat="36.614000" lon="-114.624530">
        <ele>544.095</ele>
        <time>2018-12-28T00:12:42Z</time>
      </trkpt>
      <trkpt lat="36.614010" lon="-114.624520">
        <ele>544.025</ele>
        <time>2018-12-28T00:13:02Z</time>
      </trkpt>
      <trkpt lat="36.614220" lon="-114.624300">
        <ele>544.426</ele>
        <time>2018-12-28T00:13:22Z</time>
      </trkpt>
      <trkpt lat="36.615590" lon="-114.622760">
        <ele>546.108</ele>
        <time>2018-12-28T00:13:42Z</time>
      </trkpt>
      <trkpt lat="36.618010" lon="-114.620070">
        <ele>545.608</ele>
        <time>2018-12-28T00:14:02Z</time>
      </trkpt>
      <trkpt lat="36.618690" lon="-114.619310">
        <ele>545.015</ele>
        <time>2018-12-28T00:14:22Z</time>
      </trkpt>
      <trkpt lat="36.619930" lon="-114.617920">
        <ele>543.953</ele>
        <time>2018-12-28T00:14:42Z</time>
      </trkpt>
      <trkpt lat="36.620830" lon="-114.616920">
        <ele>543.228</ele>
        <time>2018-12-28T00:15:02Z</time>
      </trkpt>
      <trkpt lat="36.622590" lon="-114.614960">
        <ele>541.089</ele>
        <time>2018-12-28T00:15:22Z</time>
      </trkpt>
      <trkpt lat="36.623510" lon="-114.613940">
        <ele>540.863</ele>
        <time>2018-12-28T00:15:42Z</time>
      </trkpt>
      <trkpt lat="36.624210" lon="-114.613150">
        <ele>538.537</ele>
        <time>2018-12-28T00:16:02Z</time>
      </trkpt>
      <trkpt lat="36.625320" lon="-114.611910">
        <ele>539.246</ele>
        <time>2018-12-28T00:16:22Z</time>
      </trkpt>
      <trkpt lat="36.627280" lon="-114.609710">
        <ele>538.821</ele>
        <time>2018-12-28T00:16:42Z</time>
      </trkpt>
      <trkpt lat="36.628540" lon="-114.608320">
        <ele>538.295</ele>
        <time>2018-12-28T00:17:02Z</time>
      </trkpt>
      <trkpt lat="36.630970" lon="-114.605600">
        <ele>535.749</ele>
        <time>2018-12-28T00:17:22Z</time>
      </trkpt>
      <trkpt lat="36.631790" lon="-114.604710">
        <ele>534.623</ele>
        <time>2018-12-28T00:17:42Z</time>
      </trkpt>
      <trkpt lat="36.632760" lon="-114.603620">
        <ele>532.408</ele>
        <time>2018-12-28T00:18:02Z</time>
      </trkpt>
      <trkpt lat="36.632930" lon="-114.603420">
        <ele>532.232</ele>
        <time>2018-12-28T00:18:22Z</time>
      </trkpt>
      <trkpt lat="36.633760" lon="-114.602480">
        <ele>532.150</ele>
        <time>2018-12-28T00:18:42Z</time>
      </trkpt>
      <trkpt lat="36.634060" lon="-114.602150">
        <ele>532.325</ele>
        <time>2018-12-28T00:19:02Z</time>
      </trkpt>
      <trkpt lat="36.634700" lon="-114.601440">
        <ele>531.316</ele>
        <time>2018-12-28T00:19:22Z</time>
      </trkpt>
      <trkpt lat="36.635940" lon="-114.600010">
        <ele>530.840</ele>
        <time>2018-12-28T00:19:42Z</time>
      </trkpt>
      <trkpt lat="36.636720" lon="-114.599150">
        <ele>530.424</ele>
        <time>2018-12-28T00:20:02Z</time>
      </trkpt>
      <trkpt lat="36.636720" lon="-114.599140">
        <ele>530.433</ele>
        <time>2018-12-28T00:20:22Z</time>
      </trkpt>
      <trkpt lat="36.637610" lon="-114.598170">
        <ele>528.998</ele>
        <time>2018-12-28T00:20:42Z</time>
      </trkpt>
      <trkpt lat="36.639070" lon="-114.596550">
        <ele>526.621</ele>
        <time>2018-12-28T00:21:02Z</time>
      </trkpt>
      <trkpt lat="36.639600" lon="-114.595960">
        <ele>525.541</ele>
        <time>2018-12-28T00:21:22Z</time>
      </trkpt>
      <trkpt lat="36.639760" lon="-114.595780">
        <ele>525.205</ele>
        <time>2018-12-28T00:21:42Z</time>
      </trkpt>
      <trkpt lat="36.639920" lon="-114.595610">
        <ele>524.908</ele>
        <time>2018-12-28T00:22:02Z</time>
      </trkpt>
      <trkpt lat="36.640060" lon="-114.595450">
        <ele>524.675</ele>
        <time>2018-12-28T00:22:22Z</time>
      </trkpt>
      <trkpt lat="36.640190" lon="-114.595310">
        <ele>524.323</ele>
        <time>2018-12-28T00:22:42Z</time>
      </trkpt>
      <trkpt lat="36.640260" lon="-114.595230">
        <ele>524.298</ele>
        <time>2018-12-28T00:23:02Z</time>
      </trkpt>
      <trkpt lat="36.640470" lon="-114.595000">
        <ele>523.799</ele>
        <time>2018-12-28T00:23:22Z</time>
      </trkpt>
      <trkpt lat="36.640630" lon="-114.594820">
        <ele>523.373</ele>
        <time>2018-12-28T00:23:42Z</time>
      </trkpt>
      <trkpt lat="36.640860" lon="-114.594560">
        <ele>522.797</ele>
        <time>2018-12-28T00:24:02Z</time>
      </trkpt>
      <trkpt lat="36.641070" lon="-114.594330">
        <ele>521.836</ele>
        <time>2018-12-28T00:24:22Z</time>
      </trkpt>
      <trkpt lat="36.641230" lon="-114.594150">
        <ele>521.481</ele>
        <time>2018-12-28T00:24:42Z</time>
      </trkpt>
      <trkpt lat="36.641340" lon="-114.594030">
        <ele>521.175</ele>
        <time>2018-12-28T00:25:02Z</time>
      </trkpt>
      <trkpt lat="36.641530" lon="-114.593830">
        <ele>520.828</ele>
        <time>2018-12-28T00:25:22Z</time>
      </trkpt>
      <trkpt lat="36.641880" lon="-114.593470">
        <ele>520.820</ele>
        <time>2018-12-28T00:25:42Z</time>
      </trkpt>
      <trkpt lat="36.641970" lon="-114.593380">
        <ele>520.708</ele>
        <time>2018-12-28T00:26:02Z</time>
      </trkpt>
      <trkpt lat="36.642390" lon="-114.592940">
        <ele>520.250</ele>
        <time>2018-12-28T00:26:22Z</time>
      </trkpt>
      <trkpt lat="36.642570" lon="-114.592770">
        <ele>519.088</ele>
        <time>2018-12-28T00:26:42Z</time>
      </trkpt>
      <trkpt lat="36.642910" lon="-114.592420">
        <ele>517.893</ele>
        <time>2018-12-28T00:27:02Z</time>
      </trkpt>
      <trkpt lat="36.643080" lon="-114.592240">
        <ele>517.544</ele>
        <time>2018-12-28T00:27:22Z</time>
      </trkpt>
      <trkpt lat="36.643250" lon="-114.592070">
        <ele>517.268</ele>
        <time>2018-12-28T00:27:42Z</time>
      </trkpt>
      <trkpt lat="36.643590" lon="-114.591730">
        <ele>516.982</ele>
        <time>2018-12-28T00:28:02Z</time>
      </trkpt>
      <trkpt lat="36.643730" lon="-114.591590">
        <ele>516.491</ele>
        <time>2018-12-28T00:28:22Z</time>
      </trkpt>
      <trkpt lat="36.643930" lon="-114.591390">
        <ele>515.996</ele>
        <time>2018-12-28T00:28:42Z</time>
      </trkpt>
      <trkpt lat="36.644360" lon="-114.590950">
        <ele>514.831</ele>
        <time>2018-12-28T00:29:02Z</time>
      </trkpt>
      <trkpt lat="36.644450" lon="-114.590860">
        <ele>514.761</ele>
        <time>2018-12-28T00:29:22Z</time>
      </trkpt>
      <trkpt lat="36.644610" lon="-114.590690">
        <ele>514.607</ele>
        <time>2018-12-28T00:29:42Z</time>
      </trkpt>
      <trkpt lat="36.644780" lon="-114.590530">
        <ele>514.608</ele>
        <time>2018-12-28T00:30:02Z</time>
      </trkpt>
      <trkpt lat="36.644900" lon="-114.590400">
        <ele>514.716</ele>
        <time>2018-12-28T00:30:22Z</time>
      </trkpt>
      <trkpt lat="36.644970" lon="-114.590330">
        <ele>514.834</ele>
        <time>2018-12-28T00:30:42Z</time>
      </trkpt>
      <trkpt lat="36.645130" lon="-114.590160">
        <ele>514.739</ele>
        <time>2018-12-28T00:31:02Z</time>
      </trkpt>
      <trkpt lat="36.645210" lon="-114.590080">
        <ele>514.630</ele>
        <time>2018-12-28T00:31:22Z</time>
      </trkpt>
      <trkpt lat="36.645300" lon="-114.589990">
        <ele>514.444</ele>
        <time>2018-12-28T00:31:42Z</time>
      </trkpt>
      <trkpt lat="36.645380" lon="-114.589910">
        <ele>514.298</ele>
        <time>2018-12-28T00:32:02Z</time>
      </trkpt>
      <trkpt lat="36.645470" lon="-114.589820">
        <ele>514.057</ele>
        <time>2018-12-28T00:32:22Z</time>
      </trkpt>
      <trkpt lat="36.645570" lon="-114.589720">
        <ele>513.772</ele>
        <time>2018-12-28T00:32:42Z</time>
      </trkpt>
      <trkpt lat="36.645760" lon="-114.589540">
        <ele>513.388</ele>
        <time>2018-12-28T00:33:02Z</time>
      </trkpt>
      <trkpt lat="36.645870" lon="-114.589420">
        <ele>513.024</ele>
        <time>2018-12-28T00:33:22Z</time>
      </trkpt>
      <trkpt lat="36.646020" lon="-114.589260">
        <ele>512.826</ele>
        <time>2018-12-28T00:33:42Z</time>
      </trkpt>
      <trkpt lat="36.646070" lon="-114.589220">
        <ele>512.808</ele>
        <time>2018-12-28T00:34:02Z</time>
      </trkpt>
      <trkpt lat="36.646150" lon="-114.589140">
        <ele>512.871</ele>
        <time>2018-12-28T00:34:22Z</time>
      </trkpt>
      <trkpt lat="36.646400" lon="-114.588880">
        <ele>513.119</ele>
        <time>2018-12-28T00:34:42Z</time>
      </trkpt>
      <trkpt lat="36.646500" lon="-114.588780">
        <ele>513.154</ele>
        <time>2018-12-28T00:35:02Z</time>
      </trkpt>
      <trkpt lat="36.646780" lon="-114.588490">
        <ele>512.565</ele>
        <time>2018-12-28T00:35:22Z</time>
      </trkpt>
      <trkpt lat="36.646970" lon="-114.588300">
        <ele>512.459</ele>
        <time>2018-12-28T00:35:42Z</time>
      </trkpt>
      <trkpt lat="36.647200" lon="-114.588060">
        <ele>512.743</ele>
        <time>2018-12-28T00:36:02Z</time>
      </trkpt>
      <trkpt lat="36.647380" lon="-114.587880">
        <ele>513.682</ele>
        <time>2018-12-28T00:36:22Z</time>
      </trkpt>
      <trkpt lat="36.647520" lon="-114.587740">
        <ele>514.217</ele>
        <time>2018-12-28T00:36:42Z</time>
      </trkpt>
      <trkpt lat="36.647600" lon="-114.587660">
        <ele>514.489</ele>
        <time>2018-12-28T00:37:02Z</time>
      </trkpt>
      <trkpt lat="36.647810" lon="-114.587440">
        <ele>514.506</ele>
        <time>2018-12-28T00:37:22Z</time>
      </trkpt>
      <trkpt lat="36.648180" lon="-114.587070">
        <ele>514.626</ele>
        <time>2018-12-28T00:37:42Z</time>
      </trkpt>
      <trkpt lat="36.648340" lon="-114.586910">
        <ele>514.808</ele>
        <time>2018-12-28T00:38:02Z</time>
      </trkpt>
      <trkpt lat="36.648460" lon="-114.586780">
        <ele>514.731</ele>
        <time>2018-12-28T00:38:22Z</time>
      </trkpt>
      <trkpt lat="36.648780" lon="-114.586460">
        <ele>516.749</ele>
        <time>2018-12-28T00:38:42Z</time>
      </trkpt>
      <trkpt lat="36.649130" lon="-114.586110">
        <ele>520.064</ele>
        <time>2018-12-28T00:39:02Z</time>
      </trkpt>
      <trkpt lat="36.649360" lon="-114.585870">
        <ele>520.325</ele>
        <time>2018-12-28T00:39:22Z</time>
      </trkpt>
      <trkpt lat="36.649750" lon="-114.585480">
        <ele>516.719</ele>
        <time>2018-12-28T00:39:42Z</time>
      </trkpt>
      <trkpt lat="36.649940" lon="-114.585290">
        <ele>512.483</ele>
        <time>2018-12-28T00:40:02Z</time>
      </trkpt>
      <trkpt lat="36.650120" lon="-114.585100">
        <ele>510.892</ele>
        <time>2018-12-28T00:40:22Z</time>
      </trkpt>
      <trkpt lat="36.650430" lon="-114.584790">
        <ele>510.687</ele>
        <time>2018-12-28T00:40:42Z</time>
      </trkpt>
      <trkpt lat="36.650940" lon="-114.584280">
        <ele>508.252</ele>
        <time>2018-12-28T00:41:02Z</time>
      </trkpt>
      <trkpt lat="36.651200" lon="-114.584020">
        <ele>506.953</ele>
        <time>2018-12-28T00:41:22Z</time>
      </trkpt>
      <trkpt lat="36.651710" lon="-114.583500">
        <ele>504.308</ele>
        <time>2018-12-28T00:41:42Z</time>
      </trkpt>
      <trkpt lat="36.651800" lon="-114.583410">
        <ele>503.908</ele>
        <time>2018-12-28T00:42:02Z</time>
      </trkpt>
      <trkpt lat="36.652390" lon="-114.582790">
        <ele>501.278</ele>
        <time>2018-12-28T00:42:22Z</time>
      </trkpt>
      <trkpt lat="36.652700" lon="-114.582450">
        <ele>500.016</ele>
        <time>2018-12-28T00:42:42Z</time>
      </trkpt>
      <trkpt lat="36.653030" lon="-114.582110">
        <ele>494.231</ele>
        <time>2018-12-28T00:43:02Z</time>
      </trkpt>
      <trkpt lat="36.653150" lon="-114.581990">
        <ele>493.962</ele>
        <time>2018-12-28T00:43:22Z</time>
      </trkpt>
      <trkpt lat="36.653400" lon="-114.581730">
        <ele>493.316</ele>
        <time>2018-12-28T00:43:42Z</time>
      </trkpt>
      <trkpt lat="36.653570" lon="-114.581550">
        <ele>492.780</ele>
        <time>2018-12-28T00:44:02Z</time>
      </trkpt>
      <trkpt lat="36.653820" lon="-114.581290">
        <ele>492.069</ele>
        <time>2018-12-28T00:44:22Z</time>
      </trkpt>
      <trkpt lat="36.654160" lon="-114.580930">
        <ele>491.574</ele>
        <time>2018-12-28T00:44:42Z</time>
      </trkpt>
      <trkpt lat="36.654410" lon="-114.580660">
        <ele>490.743</ele>
        <time>2018-12-28T00:45:02Z</time>
      </trkpt>
      <trkpt lat="36.654750" lon="-114.580300">
        <ele>490.264</ele>
        <time>2018-12-28T00:45:22Z</time>
      </trkpt>
      <trkpt lat="36.655000" lon="-114.580040">
        <ele>489.610</ele>
        <time>2018-12-28T00:45:42Z</time>
      </trkpt>
      <trkpt lat="36.655420" lon="-114.579590">
        <ele>488.208</ele>
        <time>2018-12-28T00:46:02Z</time>
      </trkpt>
      <trkpt lat="36.655670" lon="-114.579320">
        <ele>486.877</ele>
        <time>2018-12-28T00:46:22Z</time>
      </trkpt>
      <trkpt lat="36.656260" lon="-114.578700">
        <ele>483.275</ele>
        <time>2018-12-28T00:46:42Z</time>
      </trkpt>
      <trkpt lat="36.656510" lon="-114.578440">
        <ele>482.530</ele>
        <time>2018-12-28T00:47:02Z</time>
      </trkpt>
      <trkpt lat="36.656610" lon="-114.578320">
        <ele>482.151</ele>
        <time>2018-12-28T00:47:22Z</time>
      </trkpt>
      <trkpt lat="36.656930" lon="-114.577990">
        <ele>481.325</ele>
        <time>2018-12-28T00:47:42Z</time>
      </trkpt>
      <trkpt lat="36.657180" lon="-114.577730">
        <ele>480.529</ele>
        <time>2018-12-28T00:48:02Z</time>
      </trkpt>
      <trkpt lat="36.657600" lon="-114.577280">
        <ele>477.428</ele>
        <time>2018-12-28T00:48:22Z</time>
      </trkpt>
      <trkpt lat="36.657960" lon="-114.576890">
        <ele>475.133</ele>
        <time>2018-12-28T00:48:42Z</time>
      </trkpt>
      <trkpt lat="36.658380" lon="-114.576460">
        <ele>472.123</ele>
        <time>2018-12-28T00:49:02Z</time>
      </trkpt>
      <trkpt lat="36.658640" lon="-114.576190">
        <ele>470.483</ele>
        <time>2018-12-28T00:49:22Z</time>
      </trkpt>
      <trkpt lat="36.658850" lon="-114.575980">
        <ele>470.511</ele>
        <time>2018-12-28T00:49:42Z</time>
      </trkpt>
      <trkpt lat="36.659050" lon="-114.575760">
        <ele>470.808</ele>
        <time>2018-12-28T00:50:02Z</time>
      </trkpt>
      <trkpt lat="36.659340" lon="-114.575450">
        <ele>472.395</ele>
        <time>2018-12-28T00:50:22Z</time>
      </trkpt>
      <trkpt lat="36.660240" lon="-114.574480">
        <ele>472.443</ele>
        <time>2018-12-28T00:50:42Z</time>
      </trkpt>
      <trkpt lat="36.660320" lon="-114.574390">
        <ele>471.848</ele>
        <time>2018-12-28T00:51:02Z</time>
      </trkpt>
      <trkpt lat="36.660400" lon="-114.574300">
        <ele>470.959</ele>
        <time>2018-12-28T00:51:22Z</time>
      </trkpt>
      <trkpt lat="36.660710" lon="-114.573980">
        <ele>470.763</ele>
        <time>2018-12-28T00:51:42Z</time>
      </trkpt>
      <trkpt lat="36.660870" lon="-114.573800">
        <ele>470.877</ele>
        <time>2018-12-28T00:52:02Z</time>
      </trkpt>
      <trkpt lat="36.661140" lon="-114.573460">
        <ele>470.846</ele>
        <time>2018-12-28T00:52:22Z</time>
      </trkpt>
      <trkpt lat="36.661530" lon="-114.572960">
        <ele>470.571</ele>
        <time>2018-12-28T00:52:42Z</time>
      </trkpt>
      <trkpt lat="36.661870" lon="-114.572490">
        <ele>470.686</ele>
        <time>2018-12-28T00:53:02Z</time>
      </trkpt>
      <trkpt lat="36.662080" lon="-114.572180">
        <ele>469.960</ele>
        <time>2018-12-28T00:53:22Z</time>
      </trkpt>
      <trkpt lat="36.662260" lon="-114.571900">
        <ele>469.326</ele>
        <time>2018-12-28T00:53:42Z</time>
      </trkpt>
      <trkpt lat="36.662480" lon="-114.571560">
        <ele>468.608</ele>
        <time>2018-12-28T00:54:02Z</time>
      </trkpt>
      <trkpt lat="36.662700" lon="-114.571180">
        <ele>467.351</ele>
        <time>2018-12-28T00:54:22Z</time>
      </trkpt>
      <trkpt lat="36.662860" lon="-114.570900">
        <ele>463.559</ele>
        <time>2018-12-28T00:54:42Z</time>
      </trkpt>
      <trkpt lat="36.663060" lon="-114.570510">
        <ele>460.794</ele>
        <time>2018-12-28T00:55:02Z</time>
      </trkpt>
      <trkpt lat="36.663210" lon="-114.570220">
        <ele>460.815</ele>
        <time>2018-12-28T00:55:22Z</time>
      </trkpt>
      <trkpt lat="36.663440" lon="-114.569730">
        <ele>461.219</ele>
        <time>2018-12-28T00:55:42Z</time>
      </trkpt>
      <trkpt lat="36.663570" lon="-114.569440">
        <ele>461.323</ele>
        <time>2018-12-28T00:56:02Z</time>
      </trkpt>
      <trkpt lat="36.663760" lon="-114.568980">
        <ele>461.772</ele>
        <time>2018-12-28T00:56:22Z</time>
      </trkpt>
      <trkpt lat="36.663890" lon="-114.568640">
        <ele>461.847</ele>
        <time>2018-12-28T00:56:42Z</time>
      </trkpt>
      <trkpt lat="36.664020" lon="-114.568300">
        <ele>462.044</ele>
        <time>2018-12-28T00:57:02Z</time>
      </trkpt>
      <trkpt lat="36.664160" lon="-114.567900">
        <ele>462.305</ele>
        <time>2018-12-28T00:57:22Z</time>
      </trkpt>
      <trkpt lat="36.664310" lon="-114.567420">
        <ele>462.615</ele>
        <time>2018-12-28T00:57:42Z</time>
      </trkpt>
      <trkpt lat="36.664380" lon="-114.567170">
        <ele>462.808</ele>
        <time>2018-12-28T00:58:02Z</time>
      </trkpt>
      <trkpt lat="36.664460" lon="-114.566900">
        <ele>463.177</ele>
        <time>2018-12-28T00:58:22Z</time>
      </trkpt>
      <trkpt lat="36.664610" lon="-114.566310">
        <ele>463.635</ele>
        <time>2018-12-28T00:58:42Z</time>
      </trkpt>
      <trkpt lat="36.664690" lon="-114.565980">
        <ele>463.980</ele>
        <time>2018-12-28T00:59:02Z</time>
      </trkpt>
      <trkpt lat="36.664760" lon="-114.565640">
        <ele>464.341</ele>
        <time>2018-12-28T00:59:22Z</time>
      </trkpt>
      <trkpt lat="36.664840" lon="-114.565270">
        <ele>464.785</ele>
        <time>2018-12-28T00:59:42Z</time>
      </trkpt>
      <trkpt lat="36.664900" lon="-114.564900">
        <ele>465.239</ele>
        <time>2018-12-28T01:00:02Z</time>
      </trkpt>
      <trkpt lat="36.664960" lon="-114.564580">
        <ele>465.688</ele>
        <time>2018-12-28T01:00:22Z</time>
      </trkpt>
      <trkpt lat="36.664980" lon="-114.564410">
        <ele>465.873</ele>
        <time>2018-12-28T01:00:42Z</time>
      </trkpt>
      <trkpt lat="36.665010" lon="-114.564180">
        <ele>466.224</ele>
        <time>2018-12-28T01:01:02Z</time>
      </trkpt>
      <trkpt lat="36.665080" lon="-114.563650">
        <ele>467.804</ele>
        <time>2018-12-28T01:01:22Z</time>
      </trkpt>
      <trkpt lat="36.665140" lon="-114.562880">
        <ele>471.114</ele>
        <time>2018-12-28T01:01:42Z</time>
      </trkpt>
      <trkpt lat="36.665200" lon="-114.562190">
        <ele>471.008</ele>
        <time>2018-12-28T01:02:02Z</time>
      </trkpt>
      <trkpt lat="36.665230" lon="-114.561880">
        <ele>470.875</ele>
        <time>2018-12-28T01:02:22Z</time>
      </trkpt>
      <trkpt lat="36.665230" lon="-114.561840">
        <ele>470.883</ele>
        <time>2018-12-28T01:02:42Z</time>
      </trkpt>
      <trkpt lat="36.665260" lon="-114.561480">
        <ele>470.968</ele>
        <time>2018-12-28T01:03:02Z</time>
      </trkpt>
      <trkpt lat="36.665280" lon="-114.561280">
        <ele>470.959</ele>
        <time>2018-12-28T01:03:22Z</time>
      </trkpt>
      <trkpt lat="36.665330" lon="-114.560680">
        <ele>471.243</ele>
        <time>2018-12-28T01:03:42Z</time>
      </trkpt>
      <trkpt lat="36.665460" lon="-114.559020">
        <ele>474.027</ele>
        <time>2018-12-28T01:04:02Z</time>
      </trkpt>
      <trkpt lat="36.665500" lon="-114.558530">
        <ele>475.496</ele>
        <time>2018-12-28T01:04:22Z</time>
      </trkpt>
      <trkpt lat="36.665620" lon="-114.557070">
        <ele>476.631</ele>
        <time>2018-12-28T01:04:42Z</time>
      </trkpt>
      <trkpt lat="36.665680" lon="-114.556440">
        <ele>477.421</ele>
        <time>2018-12-28T01:05:02Z</time>
      </trkpt>
      <trkpt lat="36.665900" lon="-114.553730">
        <ele>477.441</ele>
        <time>2018-12-28T01:05:22Z</time>
      </trkpt>
      <trkpt lat="36.666260" lon="-114.549400">
        <ele>480.705</ele>
        <time>2018-12-28T01:05:42Z</time>
      </trkpt>
      <trkpt lat="36.666320" lon="-114.548690">
        <ele>482.308</ele>
        <time>2018-12-28T01:06:02Z</time>
      </trkpt>
      <trkpt lat="36.666360" lon="-114.548120">
        <ele>484.715</ele>
        <time>2018-12-28T01:06:22Z</time>
      </trkpt>
      <trkpt lat="36.666470" lon="-114.546790">
        <ele>488.153</ele>
        <time>2018-12-28T01:06:42Z</time>
      </trkpt>
      <trkpt lat="36.666650" lon="-114.544590">
        <ele>490.478</ele>
        <time>2018-12-28T01:07:02Z</time>
      </trkpt>
      <trkpt lat="36.666730" lon="-114.543680">
        <ele>489.299</ele>
        <time>2018-12-28T01:07:22Z</time>
      </trkpt>
      <trkpt lat="36.666890" lon="-114.541740">
        <ele>486.633</ele>
        <time>2018-12-28T01:07:42Z</time>
      </trkpt>
      <trkpt lat="36.666950" lon="-114.541050">
        <ele>487.547</ele>
        <time>2018-12-28T01:08:02Z</time>
      </trkpt>
      <trkpt lat="36.667020" lon="-114.540180">
        <ele>489.576</ele>
        <time>2018-12-28T01:08:22Z</time>
      </trkpt>
      <trkpt lat="36.667040" lon="-114.539860">
        <ele>490.141</ele>
        <time>2018-12-28T01:08:42Z</time>
      </trkpt>
      <trkpt lat="36.667110" lon="-114.539060">
        <ele>490.851</ele>
        <time>2018-12-28T01:09:02Z</time>
      </trkpt>
      <trkpt lat="36.667130" lon="-114.538870">
        <ele>490.801</ele>
        <time>2018-12-28T01:09:22Z</time>
      </trkpt>
      <trkpt lat="36.667160" lon="-114.538510">
        <ele>490.811</ele>
        <time>2018-12-28T01:09:42Z</time>
      </trkpt>
      <trkpt lat="36.667190" lon="-114.538180">
        <ele>490.708</ele>
        <time>2018-12-28T01:10:02Z</time>
      </trkpt>
      <trkpt lat="36.667250" lon="-114.537660">
        <ele>490.888</ele>
        <time>2018-12-28T01:10:22Z</time>
      </trkpt>
      <trkpt lat="36.667350" lon="-114.536900">
        <ele>491.086</ele>
        <time>2018-12-28T01:10:42Z</time>
      </trkpt>
      <trkpt lat="36.667450" lon="-114.536160">
        <ele>491.911</ele>
        <time>2018-12-28T01:11:02Z</time>
      </trkpt>
      <trkpt lat="36.667510" lon="-114.535790">
        <ele>492.042</ele>
        <time>2018-12-28T01:11:22Z</time>
      </trkpt>
      <trkpt lat="36.667610" lon="-114.535190">
        <ele>495.156</ele>
        <time>2018-12-28T01:11:42Z</time>
      </trkpt>
      <trkpt lat="36.667650" lon="-114.535000">
        <ele>496.350</ele>
        <time>2018-12-28T01:12:02Z</time>
      </trkpt>
      <trkpt lat="36.667700" lon="-114.534690">
        <ele>498.369</ele>
        <time>2018-12-28T01:12:22Z</time>
      </trkpt>
      <trkpt lat="36.667710" lon="-114.534610">
        <ele>498.864</ele>
        <time>2018-12-28T01:12:42Z</time>
      </trkpt>
      <trkpt lat="36.667760" lon="-114.534350">
        <ele>500.086</ele>
        <time>2018-12-28T01:13:02Z</time>
      </trkpt>
      <trkpt lat="36.668010" lon="-114.533090">
        <ele>504.960</ele>
        <time>2018-12-28T01:13:22Z</time>
      </trkpt>
      <trkpt lat="36.668080" lon="-114.532710">
        <ele>506.226</ele>
        <time>2018-12-28T01:13:42Z</time>
      </trkpt>
      <trkpt lat="36.668300" lon="-114.531560">
        <ele>508.908</ele>
        <time>2018-12-28T01:14:02Z</time>
      </trkpt>
      <trkpt lat="36.668710" lon="-114.529440">
        <ele>515.151</ele>
        <time>2018-12-28T01:14:22Z</time>
      </trkpt>
      <trkpt lat="36.669120" lon="-114.527340">
        <ele>520.539</ele>
        <time>2018-12-28T01:14:42Z</time>
      </trkpt>
      <trkpt lat="36.669190" lon="-114.526970">
        <ele>520.134</ele>
        <time>2018-12-28T01:15:02Z</time>
      </trkpt>
      <trkpt lat="36.669280" lon="-114.526470">
        <ele>520.785</ele>
        <time>2018-12-28T01:15:22Z</time>
      </trkpt>
      <trkpt lat="36.669400" lon="-114.525880">
        <ele>522.249</ele>
        <time>2018-12-28T01:15:42Z</time>
      </trkpt>
      <trkpt lat="36.669540" lon="-114.525140">
        <ele>523.933</ele>
        <time>2018-12-28T01:16:02Z</time>
      </trkpt>
      <trkpt lat="36.669640" lon="-114.524680">
        <ele>525.072</ele>
        <time>2018-12-28T01:16:22Z</time>
      </trkpt>
      <trkpt lat="36.669760" lon="-114.524170">
        <ele>527.817</ele>
        <time>2018-12-28T01:16:42Z</time>
      </trkpt>
      <trkpt lat="36.669860" lon="-114.523780">
        <ele>530.617</ele>
        <time>2018-12-28T01:17:02Z</time>
      </trkpt>
      <trkpt lat="36.669970" lon="-114.523380">
        <ele>531.887</ele>
        <time>2018-12-28T01:17:22Z</time>
      </trkpt>
      <trkpt lat="36.670050" lon="-114.523120">
        <ele>533.515</ele>
        <time>2018-12-28T01:17:42Z</time>
      </trkpt>
      <trkpt lat="36.670210" lon="-114.522610">
        <ele>536.908</ele>
        <time>2018-12-28T01:18:02Z</time>
      </trkpt>
      <trkpt lat="36.670390" lon="-114.522130">
        <ele>538.744</ele>
        <time>2018-12-28T01:18:22Z</time>
      </trkpt>
      <trkpt lat="36.670560" lon="-114.521700">
        <ele>540.022</ele>
        <time>2018-12-28T01:18:42Z</time>
      </trkpt>
      <trkpt lat="36.670590" lon="-114.521620">
        <ele>540.157</ele>
        <time>2018-12-28T01:19:02Z</time>
      </trkpt>
      <trkpt lat="36.670620" lon="-114.521550">
        <ele>540.298</ele>
        <time>2018-12-28T01:19:22Z</time>
      </trkpt>
      <trkpt lat="36.670740" lon="-114.521260">
        <ele>540.182</ele>
        <time>2018-12-28T01:19:42Z</time>
      </trkpt>
      <trkpt lat="36.670800" lon="-114.521130">
        <ele>540.246</ele>
        <time>2018-12-28T01:20:02Z</time>
      </trkpt>
      <trkpt lat="36.670960" lon="-114.520790">
        <ele>540.475</ele>
        <time>2018-12-28T01:20:22Z</time>
      </trkpt>
      <trkpt lat="36.671180" lon="-114.520340">
        <ele>541.770</ele>
        <time>2018-12-28T01:20:42Z</time>
      </trkpt>
      <trkpt lat="36.671320" lon="-114.520070">
        <ele>542.739</ele>
        <time>2018-12-28T01:21:02Z</time>
      </trkpt>
      <trkpt lat="36.671490" lon="-114.519760">
        <ele>544.201</ele>
        <time>2018-12-28T01:21:22Z</time>
      </trkpt>
      <trkpt lat="36.671690" lon="-114.519440">
        <ele>546.421</ele>
        <time>2018-12-28T01:21:42Z</time>
      </trkpt>
      <trkpt lat="36.671820" lon="-114.519220">
        <ele>547.608</ele>
        <time>2018-12-28T01:22:02Z</time>
      </trkpt>
      <trkpt lat="36.671910" lon="-114.519060">
        <ele>548.316</ele>
        <time>2018-12-28T01:22:22Z</time>
      </trkpt>
      <trkpt lat="36.672020" lon="-114.518890">
        <ele>548.964</ele>
        <time>2018-12-28T01:22:42Z</time>
      </trkpt>
      <trkpt lat="36.672150" lon="-114.518700">
        <ele>549.649</ele>
        <time>2018-12-28T01:23:02Z</time>
      </trkpt>
      <trkpt lat="36.672400" lon="-114.518360">
        <ele>550.920</ele>
        <time>2018-12-28T01:23:22Z</time>
      </trkpt>
      <trkpt lat="36.672620" lon="-114.518050">
        <ele>552.094</ele>
        <time>2018-12-28T01:23:42Z</time>
      </trkpt>
      <trkpt lat="36.672780" lon="-114.517850">
        <ele>552.948</ele>
        <time>2018-12-28T01:24:02Z</time>
      </trkpt>
      <trkpt lat="36.672890" lon="-114.517710">
        <ele>554.347</ele>
        <time>2018-12-28T01:24:22Z</time>
      </trkpt>
      <trkpt lat="36.673060" lon="-114.517500">
        <ele>556.982</ele>
        <time>2018-12-28T01:24:42Z</time>
      </trkpt>
      <trkpt lat="36.673390" lon="-114.517120">
        <ele>560.715</ele>
        <time>2018-12-28T01:25:02Z</time>
      </trkpt>
      <trkpt lat="36.673720" lon="-114.516770">
        <ele>561.665</ele>
        <time>2018-12-28T01:25:22Z</time>
      </trkpt>
      <trkpt lat="36.673970" lon="-114.516520">
        <ele>562.211</ele>
        <time>2018-12-28T01:25:42Z</time>
      </trkpt>
      <trkpt lat="36.674230" lon="-114.516270">
        <ele>563.008</ele>
        <time>2018-12-28T01:26:02Z</time>
      </trkpt>
      <trkpt lat="36.674270" lon="-114.516230">
        <ele>563.454</ele>
        <time>2018-12-28T01:26:22Z</time>
      </trkpt>
      <trkpt lat="36.674320" lon="-114.516170">
        <ele>564.112</ele>
        <time>2018-12-28T01:26:42Z</time>
      </trkpt>
      <trkpt lat="36.674360" lon="-114.516160">
        <ele>564.697</ele>
        <time>2018-12-28T01:27:02Z</time>
      </trkpt>
      <trkpt lat="36.674580" lon="-114.515960">
        <ele>568.478</ele>
        <time>2018-12-28T01:27:22Z</time>
      </trkpt>
      <trkpt lat="36.674720" lon="-114.515840">
        <ele>569.842</ele>
        <time>2018-12-28T01:27:42Z</time>
      </trkpt>
      <trkpt lat="36.674860" lon="-114.515740">
        <ele>570.946</ele>
        <time>2018-12-28T01:28:02Z</time>
      </trkpt>
      <trkpt lat="36.675050" lon="-114.515580">
        <ele>570.985</ele>
        <time>2018-12-28T01:28:22Z</time>
      </trkpt>
      <trkpt lat="36.675320" lon="-114.515360">
        <ele>571.390</ele>
        <time>2018-12-28T01:28:42Z</time>
      </trkpt>
      <trkpt lat="36.675460" lon="-114.515260">
        <ele>571.692</ele>
        <time>2018-12-28T01:29:02Z</time>
      </trkpt>
      <trkpt lat="36.675600" lon="-114.515160">
        <ele>572.773</ele>
        <time>2018-12-28T01:29:22Z</time>
      </trkpt>
      <trkpt lat="36.675800" lon="-114.515020">
        <ele>574.320</ele>
        <time>2018-12-28T01:29:42Z</time>
      </trkpt>
      <trkpt lat="36.675980" lon="-114.514900">
        <ele>578.208</ele>
        <time>2018-12-28T01:30:02Z</time>
      </trkpt>
      <trkpt lat="36.676390" lon="-114.514660">
        <ele>581.252</ele>
        <time>2018-12-28T01:30:22Z</time>
      </trkpt>
      <trkpt lat="36.676580" lon="-114.514540">
        <ele>581.540</ele>
        <time>2018-12-28T01:30:42Z</time>
      </trkpt>
      <trkpt lat="36.676790" lon="-114.514430">
        <ele>581.575</ele>
        <time>2018-12-28T01:31:02Z</time>
      </trkpt>
      <trkpt lat="36.677200" lon="-114.514220">
        <ele>585.486</ele>
        <time>2018-12-28T01:31:22Z</time>
      </trkpt>
      <trkpt lat="36.677690" lon="-114.513980">
        <ele>591.950</ele>
        <time>2018-12-28T01:31:42Z</time>
      </trkpt>
      <trkpt lat="36.678500" lon="-114.513580">
        <ele>599.184</ele>
        <time>2018-12-28T01:32:02Z</time>
      </trkpt>
      <trkpt lat="36.679030" lon="-114.513330">
        <ele>602.173</ele>
        <time>2018-12-28T01:32:22Z</time>
      </trkpt>
      <trkpt lat="36.679520" lon="-114.513100">
        <ele>607.388</ele>
        <time>2018-12-28T01:32:42Z</time>
      </trkpt>
      <trkpt lat="36.680150" lon="-114.512790">
        <ele>605.665</ele>
        <time>2018-12-28T01:33:02Z</time>
      </trkpt>
      <trkpt lat="36.680860" lon="-114.512430">
        <ele>610.168</ele>
        <time>2018-12-28T01:33:22Z</time>
      </trkpt>
      <trkpt lat="36.681360" lon="-114.512190">
        <ele>615.414</ele>
        <time>2018-12-28T01:33:42Z</time>
      </trkpt>
      <trkpt lat="36.681660" lon="-114.512030">
        <ele>618.508</ele>
        <time>2018-12-28T01:34:02Z</time>
      </trkpt>
      <trkpt lat="36.682370" lon="-114.511620">
        <ele>620.299</ele>
        <time>2018-12-28T01:34:22Z</time>
      </trkpt>
      <trkpt lat="36.682840" lon="-114.511340">
        <ele>620.437</ele>
        <time>2018-12-28T01:34:42Z</time>
      </trkpt>
      <trkpt lat="36.683270" lon="-114.511060">
        <ele>617.992</ele>
        <time>2018-12-28T01:35:02Z</time>
      </trkpt>
      <trkpt lat="36.683760" lon="-114.510740">
        <ele>621.263</ele>
        <time>2018-12-28T01:35:22Z</time>
      </trkpt>
      <trkpt lat="36.684040" lon="-114.510550">
        <ele>622.877</ele>
        <time>2018-12-28T01:35:42Z</time>
      </trkpt>
      <trkpt lat="36.684810" lon="-114.510010">
        <ele>624.441</ele>
        <time>2018-12-28T01:36:02Z</time>
      </trkpt>
      <trkpt lat="36.685830" lon="-114.509210">
        <ele>624.530</ele>
        <time>2018-12-28T01:36:22Z</time>
      </trkpt>
      <trkpt lat="36.686460" lon="-114.508680">
        <ele>625.365</ele>
        <time>2018-12-28T01:36:42Z</time>
      </trkpt>
      <trkpt lat="36.686910" lon="-114.508270">
        <ele>625.481</ele>
        <time>2018-12-28T01:37:02Z</time>
      </trkpt>
      <trkpt lat="36.687170" lon="-114.508030">
        <ele>625.461</ele>
        <time>2018-12-28T01:37:22Z</time>
      </trkpt>
      <trkpt lat="36.687770" lon="-114.507450">
        <ele>625.517</ele>
        <time>2018-12-28T01:37:42Z</time>
      </trkpt>
      <trkpt lat="36.688550" lon="-114.506660">
        <ele>625.708</ele>
        <time>2018-12-28T01:38:02Z</time>
      </trkpt>
      <trkpt lat="36.689120" lon="-114.506030">
        <ele>626.181</ele>
        <time>2018-12-28T01:38:22Z</time>
      </trkpt>
      <trkpt lat="36.689610" lon="-114.505470">
        <ele>626.529</ele>
        <time>2018-12-28T01:38:42Z</time>
      </trkpt>
      <trkpt lat="36.690540" lon="-114.504380">
        <ele>627.394</ele>
        <time>2018-12-28T01:39:02Z</time>
      </trkpt>
      <trkpt lat="36.691150" lon="-114.503660">
        <ele>627.435</ele>
        <time>2018-12-28T01:39:22Z</time>
      </trkpt>
      <trkpt lat="36.692140" lon="-114.502500">
        <ele>623.049</ele>
        <time>2018-12-28T01:39:42Z</time>
      </trkpt>
      <trkpt lat="36.693020" lon="-114.501470">
        <ele>623.863</ele>
        <time>2018-12-28T01:40:02Z</time>
      </trkpt>
      <trkpt lat="36.693500" lon="-114.500920">
        <ele>625.212</ele>
        <time>2018-12-28T01:40:22Z</time>
      </trkpt>
      <trkpt lat="36.693960" lon="-114.500370">
        <ele>627.427</ele>
        <time>2018-12-28T01:40:42Z</time>
      </trkpt>
      <trkpt lat="36.694220" lon="-114.500070">
        <ele>626.966</ele>
        <time>2018-12-28T01:41:02Z</time>
      </trkpt>
      <trkpt lat="36.694440" lon="-114.499810">
        <ele>627.729</ele>
        <time>2018-12-28T01:41:22Z</time>
      </trkpt>
      <trkpt lat="36.694590" lon="-114.499620">
        <ele>628.321</ele>
        <time>2018-12-28T01:41:42Z</time>
      </trkpt>
      <trkpt lat="36.694920" lon="-114.499230">
        <ele>628.808</ele>
        <time>2018-12-28T01:42:02Z</time>
      </trkpt>
      <trkpt lat="36.695310" lon="-114.498760">
        <ele>629.259</ele>
        <time>2018-12-28T01:42:22Z</time>
      </trkpt>
      <trkpt lat="36.695500" lon="-114.498530">
        <ele>629.177</ele>
        <time>2018-12-28T01:42:42Z</time>
      </trkpt>
      <trkpt lat="36.695920" lon="-114.498050">
        <ele>629.512</ele>
        <time>2018-12-28T01:43:02Z</time>
      </trkpt>
      <trkpt lat="36.696380" lon="-114.497510">
        <ele>630.023</ele>
        <time>2018-12-28T01:43:22Z</time>
      </trkpt>
      <trkpt lat="36.696960" lon="-114.496810">
        <ele>630.627</ele>
        <time>2018-12-28T01:43:42Z</time>
      </trkpt>
      <trkpt lat="36.697430" lon="-114.496230">
        <ele>631.291</ele>
        <time>2018-12-28T01:44:02Z</time>
      </trkpt>
      <trkpt lat="36.697940" lon="-114.495550">
        <ele>632.420</ele>
        <time>2018-12-28T01:44:22Z</time>
      </trkpt>
      <trkpt lat="36.698370" lon="-114.494950">
        <ele>633.215</ele>
        <time>2018-12-28T01:44:42Z</time>
      </trkpt>
      <trkpt lat="36.698730" lon="-114.494420">
        <ele>633.741</ele>
        <time>2018-12-28T01:45:02Z</time>
      </trkpt>
      <trkpt lat="36.699210" lon="-114.493690">
        <ele>634.081</ele>
        <time>2018-12-28T01:45:22Z</time>
      </trkpt>
      <trkpt lat="36.699480" lon="-114.493250">
        <ele>633.909</ele>
        <time>2018-12-28T01:45:42Z</time>
      </trkpt>
      <trkpt lat="36.699720" lon="-114.492870">
        <ele>633.708</ele>
        <time>2018-12-28T01:46:02Z</time>
      </trkpt>
      <trkpt lat="36.700370" lon="-114.491820">
        <ele>633.367</ele>
        <time>2018-12-28T01:46:22Z</time>
      </trkpt>
      <trkpt lat="36.700450" lon="-114.491690">
        <ele>633.245</ele>
        <time>2018-12-28T01:46:42Z</time>
      </trkpt>
      <trkpt lat="36.701210" lon="-114.490460">
        <ele>633.510</ele>
        <time>2018-12-28T01:47:02Z</time>
      </trkpt>
      <trkpt lat="36.701740" lon="-114.489600">
        <ele>634.181</ele>
        <time>2018-12-28T01:47:22Z</time>
      </trkpt>
      <trkpt lat="36.702280" lon="-114.488730">
        <ele>635.345</ele>
        <time>2018-12-28T01:47:42Z</time>
      </trkpt>
      <trkpt lat="36.702730" lon="-114.488000">
        <ele>635.479</ele>
        <time>2018-12-28T01:48:02Z</time>
      </trkpt>
      <trkpt lat="36.703070" lon="-114.487450">
        <ele>635.528</ele>
        <time>2018-12-28T01:48:22Z</time>
      </trkpt>
      <trkpt lat="36.703480" lon="-114.486790">
        <ele>635.533</ele>
        <time>2018-12-28T01:48:42Z</time>
      </trkpt>
      <trkpt lat="36.703930" lon="-114.486060">
        <ele>635.555</ele>
        <time>2018-12-28T01:49:02Z</time>
      </trkpt>
      <trkpt lat="36.704130" lon="-114.485730">
        <ele>635.507</ele>
        <time>2018-12-28T01:49:22Z</time>
      </trkpt>
      <trkpt lat="36.704470" lon="-114.485190">
        <ele>635.517</ele>
        <time>2018-12-28T01:49:42Z</time>
      </trkpt>
      <trkpt lat="36.704800" lon="-114.484640">
        <ele>635.508</ele>
        <time>2018-12-28T01:50:02Z</time>
      </trkpt>
      <trkpt lat="36.705130" lon="-114.484100">
        <ele>635.048</ele>
        <time>2018-12-28T01:50:22Z</time>
      </trkpt>
      <trkpt lat="36.705450" lon="-114.483590">
        <ele>634.896</ele>
        <time>2018-12-28T01:50:42Z</time>
      </trkpt>
      <trkpt lat="36.705800" lon="-114.483020">
        <ele>634.771</ele>
        <time>2018-12-28T01:51:02Z</time>
      </trkpt>
      <trkpt lat="36.706130" lon="-114.482490">
        <ele>634.662</ele>
        <time>2018-12-28T01:51:22Z</time>
      </trkpt>
      <trkpt lat="36.706690" lon="-114.481580">
        <ele>634.386</ele>
        <time>2018-12-28T01:51:42Z</time>
      </trkpt>
      <trkpt lat="36.707060" lon="-114.480970">
        <ele>634.330</ele>
        <time>2018-12-28T01:52:02Z</time>
      </trkpt>
      <trkpt lat="36.707590" lon="-114.480110">
        <ele>634.399</ele>
        <time>2018-12-28T01:52:22Z</time>
      </trkpt>
      <trkpt lat="36.708060" lon="-114.479360">
        <ele>634.434</ele>
        <time>2018-12-28T01:52:42Z</time>
      </trkpt>
      <trkpt lat="36.708340" lon="-114.478900">
        <ele>634.369</ele>
        <time>2018-12-28T01:53:02Z</time>
      </trkpt>
      <trkpt lat="36.708590" lon="-114.478490">
        <ele>634.404</ele>
        <time>2018-12-28T01:53:22Z</time>
      </trkpt>
      <trkpt lat="36.709060" lon="-114.477740">
        <ele>634.324</ele>
        <time>2018-12-28T01:53:42Z</time>
      </trkpt>
      <trkpt lat="36.709660" lon="-114.476760">
        <ele>634.008</ele>
        <time>2018-12-28T01:54:02Z</time>
      </trkpt>
      <trkpt lat="36.710380" lon="-114.475580">
        <ele>633.479</ele>
        <time>2018-12-28T01:54:22Z</time>
      </trkpt>
      <trkpt lat="36.711050" lon="-114.474510">
        <ele>632.967</ele>
        <time>2018-12-28T01:54:42Z</time>
      </trkpt>
      <trkpt lat="36.711450" lon="-114.473860">
        <ele>632.782</ele>
        <time>2018-12-28T01:55:02Z</time>
      </trkpt>
      <trkpt lat="36.711980" lon="-114.473000">
        <ele>632.743</ele>
        <time>2018-12-28T01:55:22Z</time>
      </trkpt>
      <trkpt lat="36.712750" lon="-114.471750">
        <ele>632.927</ele>
        <time>2018-12-28T01:55:42Z</time>
      </trkpt>
      <trkpt lat="36.713110" lon="-114.471170">
        <ele>632.921</ele>
        <time>2018-12-28T01:56:02Z</time>
      </trkpt>
      <trkpt lat="36.713700" lon="-114.470200">
        <ele>632.970</ele>
        <time>2018-12-28T01:56:22Z</time>
      </trkpt>
      <trkpt lat="36.714240" lon="-114.469330">
        <ele>633.135</ele>
        <time>2018-12-28T01:56:42Z</time>
      </trkpt>
      <trkpt lat="36.714770" lon="-114.468470">
        <ele>633.293</ele>
        <time>2018-12-28T01:57:02Z</time>
      </trkpt>
      <trkpt lat="36.715300" lon="-114.467610">
        <ele>633.165</ele>
        <time>2018-12-28T01:57:22Z</time>
      </trkpt>
      <trkpt lat="36.715960" lon="-114.466530">
        <ele>633.621</ele>
        <time>2018-12-28T01:57:42Z</time>
      </trkpt>
      <trkpt lat="36.716690" lon="-114.465350">
        <ele>634.108</ele>
        <time>2018-12-28T01:58:02Z</time>
      </trkpt>
      <trkpt lat="36.717160" lon="-114.464580">
        <ele>634.292</ele>
        <time>2018-12-28T01:58:22Z</time>
      </trkpt>
      <trkpt lat="36.717830" lon="-114.463500">
        <ele>634.770</ele>
        <time>2018-12-28T01:58:42Z</time>
      </trkpt>
      <trkpt lat="36.718770" lon="-114.461980">
        <ele>635.755</ele>
        <time>2018-12-28T01:59:02Z</time>
      </trkpt>
      <trkpt lat="36.719350" lon="-114.461030">
        <ele>635.726</ele>
        <time>2018-12-28T01:59:22Z</time>
      </trkpt>
      <trkpt lat="36.719990" lon="-114.459990">
        <ele>635.770</ele>
        <time>2018-12-28T01:59:42Z</time>
      </trkpt>
      <trkpt lat="36.720350" lon="-114.459420">
        <ele>635.474</ele>
        <time>2018-12-28T02:00:02Z</time>
      </trkpt>
      <trkpt lat="36.720990" lon="-114.458360">
        <ele>634.533</ele>
        <time>2018-12-28T02:00:22Z</time>
      </trkpt>
      <trkpt lat="36.721550" lon="-114.457470">
        <ele>634.148</ele>
        <time>2018-12-28T02:00:42Z</time>
      </trkpt>
      <trkpt lat="36.722010" lon="-114.456720">
        <ele>633.579</ele>
        <time>2018-12-28T02:01:02Z</time>
      </trkpt>
      <trkpt lat="36.722480" lon="-114.455960">
        <ele>632.805</ele>
        <time>2018-12-28T02:01:22Z</time>
      </trkpt>
      <trkpt lat="36.722880" lon="-114.455300">
        <ele>632.125</ele>
        <time>2018-12-28T02:01:42Z</time>
      </trkpt>
      <trkpt lat="36.723280" lon="-114.454660">
        <ele>631.708</ele>
        <time>2018-12-28T02:02:02Z</time>
      </trkpt>
      <trkpt lat="36.723750" lon="-114.453900">
        <ele>631.390</ele>
        <time>2018-12-28T02:02:22Z</time>
      </trkpt>
      <trkpt lat="36.724340" lon="-114.452940">
        <ele>631.388</ele>
        <time>2018-12-28T02:02:42Z</time>
      </trkpt>
      <trkpt lat="36.725060" lon="-114.451760">
        <ele>631.583</ele>
        <time>2018-12-28T02:03:02Z</time>
      </trkpt>
      <trkpt lat="36.725700" lon="-114.450730">
        <ele>631.174</ele>
        <time>2018-12-28T02:03:22Z</time>
      </trkpt>
      <trkpt lat="36.726330" lon="-114.449710">
        <ele>630.938</ele>
        <time>2018-12-28T02:03:42Z</time>
      </trkpt>
      <trkpt lat="36.726590" lon="-114.449270">
        <ele>630.832</ele>
        <time>2018-12-28T02:04:02Z</time>
      </trkpt>
      <trkpt lat="36.727000" lon="-114.448620">
        <ele>630.961</ele>
        <time>2018-12-28T02:04:22Z</time>
      </trkpt>
      <trkpt lat="36.727400" lon="-114.447960">
        <ele>630.866</ele>
        <time>2018-12-28T02:04:42Z</time>
      </trkpt>
      <trkpt lat="36.727990" lon="-114.447010">
        <ele>630.974</ele>
        <time>2018-12-28T02:05:02Z</time>
      </trkpt>
      <trkpt lat="36.728430" lon="-114.446290">
        <ele>630.856</ele>
        <time>2018-12-28T02:05:22Z</time>
      </trkpt>
      <trkpt lat="36.728990" lon="-114.445390">
        <ele>630.721</ele>
        <time>2018-12-28T02:05:42Z</time>
      </trkpt>
      <trkpt lat="36.729320" lon="-114.444850">
        <ele>630.008</ele>
        <time>2018-12-28T02:06:02Z</time>
      </trkpt>
      <trkpt lat="36.729720" lon="-114.444200">
        <ele>629.780</ele>
        <time>2018-12-28T02:06:22Z</time>
      </trkpt>
      <trkpt lat="36.730180" lon="-114.443440">
        <ele>628.818</ele>
        <time>2018-12-28T02:06:42Z</time>
      </trkpt>
      <trkpt lat="36.730520" lon="-114.442900">
        <ele>627.513</ele>
        <time>2018-12-28T02:07:02Z</time>
      </trkpt>
      <trkpt lat="36.730950" lon="-114.442210">
        <ele>626.494</ele>
        <time>2018-12-28T02:07:22Z</time>
      </trkpt>
      <trkpt lat="36.731050" lon="-114.442040">
        <ele>626.268</ele>
        <time>2018-12-28T02:07:42Z</time>
      </trkpt>
      <trkpt lat="36.731380" lon="-114.441500">
        <ele>625.942</ele>
        <time>2018-12-28T02:08:02Z</time>
      </trkpt>
      <trkpt lat="36.731770" lon="-114.440870">
        <ele>625.911</ele>
        <time>2018-12-28T02:08:22Z</time>
      </trkpt>
      <trkpt lat="36.732030" lon="-114.440440">
        <ele>625.836</ele>
        <time>2018-12-28T02:08:42Z</time>
      </trkpt>
      <trkpt lat="36.732240" lon="-114.440110">
        <ele>625.955</ele>
        <time>2018-12-28T02:09:02Z</time>
      </trkpt>
      <trkpt lat="36.733170" lon="-114.438600">
        <ele>622.807</ele>
        <time>2018-12-28T02:09:22Z</time>
      </trkpt>
      <trkpt lat="36.733730" lon="-114.437690">
        <ele>621.117</ele>
        <time>2018-12-28T02:09:42Z</time>
      </trkpt>
      <trkpt lat="36.734360" lon="-114.436670">
        <ele>620.708</ele>
        <time>2018-12-28T02:10:02Z</time>
      </trkpt>
      <trkpt lat="36.734450" lon="-114.436530">
        <ele>620.758</ele>
        <time>2018-12-28T02:10:22Z</time>
      </trkpt>
      <trkpt lat="36.734480" lon="-114.436480">
        <ele>620.656</ele>
        <time>2018-12-28T02:10:42Z</time>
      </trkpt>
      <trkpt lat="36.734590" lon="-114.436290">
        <ele>620.781</ele>
        <time>2018-12-28T02:11:02Z</time>
      </trkpt>
      <trkpt lat="36.735430" lon="-114.434920">
        <ele>620.622</ele>
        <time>2018-12-28T02:11:22Z</time>
      </trkpt>
      <trkpt lat="36.736280" lon="-114.433550">
        <ele>613.586</ele>
        <time>2018-12-28T02:11:42Z</time>
      </trkpt>
      <trkpt lat="36.736610" lon="-114.433010">
        <ele>612.060</ele>
        <time>2018-12-28T02:12:02Z</time>
      </trkpt>
      <trkpt lat="36.736930" lon="-114.432490">
        <ele>611.079</ele>
        <time>2018-12-28T02:12:22Z</time>
      </trkpt>
      <trkpt lat="36.737350" lon="-114.431800">
        <ele>610.724</ele>
        <time>2018-12-28T02:12:42Z</time>
      </trkpt>
      <trkpt lat="36.739490" lon="-114.428340">
        <ele>610.787</ele>
        <time>2018-12-28T02:13:02Z</time>
      </trkpt>
      <trkpt lat="36.739880" lon="-114.427700">
        <ele>610.742</ele>
        <time>2018-12-28T02:13:22Z</time>
      </trkpt>
      <trkpt lat="36.740360" lon="-114.426910">
        <ele>610.726</ele>
        <time>2018-12-28T02:13:42Z</time>
      </trkpt>
      <trkpt lat="36.740870" lon="-114.426080">
        <ele>610.708</ele>
        <time>2018-12-28T02:14:02Z</time>
      </trkpt>
      <trkpt lat="36.741480" lon="-114.425100">
        <ele>610.781</ele>
        <time>2018-12-28T02:14:22Z</time>
      </trkpt>
      <trkpt lat="36.741870" lon="-114.424460">
        <ele>610.739</ele>
        <time>2018-12-28T02:14:42Z</time>
      </trkpt>
      <trkpt lat="36.742170" lon="-114.423970">
        <ele>610.794</ele>
        <time>2018-12-28T02:15:02Z</time>
      </trkpt>
      <trkpt lat="36.742440" lon="-114.423490">
        <ele>610.725</ele>
        <time>2018-12-28T02:15:22Z</time>
      </trkpt>
      <trkpt lat="36.742700" lon="-114.423040">
        <ele>610.479</ele>
        <time>2018-12-28T02:15:42Z</time>
      </trkpt>
      <trkpt lat="36.742880" lon="-114.422710">
        <ele>609.463</ele>
        <time>2018-12-28T02:16:02Z</time>
      </trkpt>
      <trkpt lat="36.743060" lon="-114.422360">
        <ele>608.372</ele>
        <time>2018-12-28T02:16:22Z</time>
      </trkpt>
      <trkpt lat="36.743240" lon="-114.422010">
        <ele>607.767</ele>
        <time>2018-12-28T02:16:42Z</time>
      </trkpt>
      <trkpt lat="36.743360" lon="-114.421780">
        <ele>607.549</ele>
        <time>2018-12-28T02:17:02Z</time>
      </trkpt>
      <trkpt lat="36.743510" lon="-114.421490">
        <ele>607.402</ele>
        <time>2018-12-28T02:17:22Z</time>
      </trkpt>
      <trkpt lat="36.743590" lon="-114.421310">
        <ele>607.322</ele>
        <time>2018-12-28T02:17:42Z</time>
      </trkpt>
      <trkpt lat="36.743770" lon="-114.420940">
        <ele>607.308</ele>
        <time>2018-12-28T02:18:02Z</time>
      </trkpt>
      <trkpt lat="36.743870" lon="-114.420730">
        <ele>607.437</ele>
        <time>2018-12-28T02:18:22Z</time>
      </trkpt>
      <trkpt lat="36.744130" lon="-114.420160">
        <ele>607.735</ele>
        <time>2018-12-28T02:18:42Z</time>
      </trkpt>
      <trkpt lat="36.744290" lon="-114.419780">
        <ele>608.040</ele>
        <time>2018-12-28T02:19:02Z</time>
      </trkpt>
      <trkpt lat="36.744590" lon="-114.419060">
        <ele>608.641</ele>
        <time>2018-12-28T02:19:22Z</time>
      </trkpt>
      <trkpt lat="36.744740" lon="-114.418700">
        <ele>608.855</ele>
        <time>2018-12-28T02:19:42Z</time>
      </trkpt>
      <trkpt lat="36.744880" lon="-114.418340">
        <ele>608.989</ele>
        <time>2018-12-28T02:20:02Z</time>
      </trkpt>
      <trkpt lat="36.745020" lon="-114.417970">
        <ele>609.288</ele>
        <time>2018-12-28T02:20:22Z</time>
      </trkpt>
      <trkpt lat="36.745230" lon="-114.417360">
        <ele>609.813</ele>
        <time>2018-12-28T02:20:42Z</time>
      </trkpt>
      <trkpt lat="36.745440" lon="-114.416740">
        <ele>610.465</ele>
        <time>2018-12-28T02:21:02Z</time>
      </trkpt>
      <trkpt lat="36.745530" lon="-114.416490">
        <ele>610.868</ele>
        <time>2018-12-28T02:21:22Z</time>
      </trkpt>
      <trkpt lat="36.745730" lon="-114.415850">
        <ele>611.114</ele>
        <time>2018-12-28T02:21:42Z</time>
      </trkpt>
      <trkpt lat="36.745870" lon="-114.415380">
        <ele>612.408</ele>
        <time>2018-12-28T02:22:02Z</time>
      </trkpt>
      <trkpt lat="36.746200" lon="-114.414200">
        <ele>611.879</ele>
        <time>2018-12-28T02:22:22Z</time>
      </trkpt>
      <trkpt lat="36.746590" lon="-114.412840">
        <ele>611.237</ele>
        <time>2018-12-28T02:22:42Z</time>
      </trkpt>
      <trkpt lat="36.747060" lon="-114.411200">
        <ele>611.212</ele>
        <time>2018-12-28T02:23:02Z</time>
      </trkpt>
      <trkpt lat="36.747770" lon="-114.408690">
        <ele>610.883</ele>
        <time>2018-12-28T02:23:22Z</time>
      </trkpt>
      <trkpt lat="36.748090" lon="-114.407560">
        <ele>611.097</ele>
        <time>2018-12-28T02:23:42Z</time>
      </trkpt>
      <trkpt lat="36.748950" lon="-114.404540">
        <ele>610.161</ele>
        <time>2018-12-28T02:24:02Z</time>
      </trkpt>
      <trkpt lat="36.749130" lon="-114.403930">
        <ele>610.770</ele>
        <time>2018-12-28T02:24:22Z</time>
      </trkpt>
      <trkpt lat="36.749740" lon="-114.401760">
        <ele>613.035</ele>
        <time>2018-12-28T02:24:42Z</time>
      </trkpt>
      <trkpt lat="36.749910" lon="-114.401160">
        <ele>613.461</ele>
        <time>2018-12-28T02:25:02Z</time>
      </trkpt>
      <trkpt lat="36.750020" lon="-114.400790">
        <ele>613.921</ele>
        <time>2018-12-28T02:25:22Z</time>
      </trkpt>
      <trkpt lat="36.750220" lon="-114.400050">
        <ele>615.913</ele>
        <time>2018-12-28T02:25:42Z</time>
      </trkpt>
      <trkpt lat="36.750640" lon="-114.398570">
        <ele>619.908</ele>
        <time>2018-12-28T02:26:02Z</time>
      </trkpt>
      <trkpt lat="36.751080" lon="-114.397020">
        <ele>621.329</ele>
        <time>2018-12-28T02:26:22Z</time>
      </trkpt>
      <trkpt lat="36.751180" lon="-114.396670">
        <ele>621.627</ele>
        <time>2018-12-28T02:26:42Z</time>
      </trkpt>
      <trkpt lat="36.751430" lon="-114.395790">
        <ele>622.052</ele>
        <time>2018-12-28T02:27:02Z</time>
      </trkpt>
      <trkpt lat="36.751750" lon="-114.394660">
        <ele>622.383</ele>
        <time>2018-12-28T02:27:22Z</time>
      </trkpt>
      <trkpt lat="36.752070" lon="-114.393520">
        <ele>622.427</ele>
        <time>2018-12-28T02:27:42Z</time>
      </trkpt>
      <trkpt lat="36.752430" lon="-114.392280">
        <ele>622.431</ele>
        <time>2018-12-28T02:28:02Z</time>
      </trkpt>
      <trkpt lat="36.752830" lon="-114.390880">
        <ele>622.690</ele>
        <time>2018-12-28T02:28:22Z</time>
      </trkpt>
      <trkpt lat="36.753210" lon="-114.389520">
        <ele>622.975</ele>
        <time>2018-12-28T02:28:42Z</time>
      </trkpt>
      <trkpt lat="36.753650" lon="-114.388000">
        <ele>624.168</ele>
        <time>2018-12-28T02:29:02Z</time>
      </trkpt>
      <trkpt lat="36.753970" lon="-114.386870">
        <ele>624.942</ele>
        <time>2018-12-28T02:29:22Z</time>
      </trkpt>
      <trkpt lat="36.754140" lon="-114.386250">
        <ele>625.126</ele>
        <time>2018-12-28T02:29:42Z</time>
      </trkpt>
      <trkpt lat="36.754600" lon="-114.384620">
        <ele>625.708</ele>
        <time>2018-12-28T02:30:02Z</time>
      </trkpt>
      <trkpt lat="36.755460" lon="-114.381610">
        <ele>626.869</ele>
        <time>2018-12-28T02:30:22Z</time>
      </trkpt>
      <trkpt lat="36.755930" lon="-114.379960">
        <ele>627.547</ele>
        <time>2018-12-28T02:30:42Z</time>
      </trkpt>
      <trkpt lat="36.756920" lon="-114.376480">
        <ele>631.072</ele>
        <time>2018-12-28T02:31:02Z</time>
      </trkpt>
      <trkpt lat="36.757110" lon="-114.375770">
        <ele>629.063</ele>
        <time>2018-12-28T02:31:22Z</time>
      </trkpt>
      <trkpt lat="36.757510" lon="-114.374390">
        <ele>629.037</ele>
        <time>2018-12-28T02:31:42Z</time>
      </trkpt>
      <trkpt lat="36.757600" lon="-114.374080">
        <ele>628.921</ele>
        <time>2018-12-28T02:32:02Z</time>
      </trkpt>
      <trkpt lat="36.757740" lon="-114.373590">
        <ele>628.810</ele>
        <time>2018-12-28T02:32:22Z</time>
      </trkpt>
      <trkpt lat="36.757920" lon="-114.372950">
        <ele>628.985</ele>
        <time>2018-12-28T02:32:42Z</time>
      </trkpt>
      <trkpt lat="36.758180" lon="-114.372070">
        <ele>629.097</ele>
        <time>2018-12-28T02:33:02Z</time>
      </trkpt>
      <trkpt lat="36.758320" lon="-114.371580">
        <ele>629.123</ele>
        <time>2018-12-28T02:33:22Z</time>
      </trkpt>
      <trkpt lat="36.758520" lon="-114.370840">
        <ele>629.725</ele>
        <time>2018-12-28T02:33:42Z</time>
      </trkpt>
      <trkpt lat="36.758820" lon="-114.369820">
        <ele>630.508</ele>
        <time>2018-12-28T02:34:02Z</time>
      </trkpt>
      <trkpt lat="36.759100" lon="-114.368820">
        <ele>630.812</ele>
        <time>2018-12-28T02:34:22Z</time>
      </trkpt>
      <trkpt lat="36.759350" lon="-114.367930">
        <ele>631.460</ele>
        <time>2018-12-28T02:34:42Z</time>
      </trkpt>
      <trkpt lat="36.759530" lon="-114.367290">
        <ele>631.645</ele>
        <time>2018-12-28T02:35:02Z</time>
      </trkpt>
      <trkpt lat="36.759670" lon="-114.366810">
        <ele>632.156</ele>
        <time>2018-12-28T02:35:22Z</time>
      </trkpt>
      <trkpt lat="36.759850" lon="-114.366180">
        <ele>632.410</ele>
        <time>2018-12-28T02:35:42Z</time>
      </trkpt>
      <trkpt lat="36.759990" lon="-114.365680">
        <ele>632.944</ele>
        <time>2018-12-28T02:36:02Z</time>
      </trkpt>
      <trkpt lat="36.760090" lon="-114.365300">
        <ele>633.093</ele>
        <time>2018-12-28T02:36:22Z</time>
      </trkpt>
      <trkpt lat="36.760230" lon="-114.364790">
        <ele>633.238</ele>
        <time>2018-12-28T02:36:42Z</time>
      </trkpt>
      <trkpt lat="36.760360" lon="-114.364290">
        <ele>633.384</ele>
        <time>2018-12-28T02:37:02Z</time>
      </trkpt>
      <trkpt lat="36.760490" lon="-114.363780">
        <ele>633.507</ele>
        <time>2018-12-28T02:37:22Z</time>
      </trkpt>
      <trkpt lat="36.760620" lon="-114.363280">
        <ele>634.017</ele>
        <time>2018-12-28T02:37:42Z</time>
      </trkpt>
      <trkpt lat="36.760710" lon="-114.362900">
        <ele>634.708</ele>
        <time>2018-12-28T02:38:02Z</time>
      </trkpt>
      <trkpt lat="36.760800" lon="-114.362510">
        <ele>634.741</ele>
        <time>2018-12-28T02:38:22Z</time>
      </trkpt>
      <trkpt lat="36.760860" lon="-114.362290">
        <ele>634.679</ele>
        <time>2018-12-28T02:38:42Z</time>
      </trkpt>
      <trkpt lat="36.760930" lon="-114.362000">
        <ele>634.734</ele>
        <time>2018-12-28T02:39:02Z</time>
      </trkpt>
      <trkpt lat="36.761010" lon="-114.361620">
        <ele>634.755</ele>
        <time>2018-12-28T02:39:22Z</time>
      </trkpt>
      <trkpt lat="36.761130" lon="-114.361120">
        <ele>634.759</ele>
        <time>2018-12-28T02:39:42Z</time>
      </trkpt>
      <trkpt lat="36.761250" lon="-114.360590">
        <ele>634.753</ele>
        <time>2018-12-28T02:40:02Z</time>
      </trkpt>
      <trkpt lat="36.761360" lon="-114.360080">
        <ele>634.742</ele>
        <time>2018-12-28T02:40:22Z</time>
      </trkpt>
      <trkpt lat="36.761490" lon="-114.359440">
        <ele>634.777</ele>
        <time>2018-12-28T02:40:42Z</time>
      </trkpt>
      <trkpt lat="36.761630" lon="-114.358800">
        <ele>634.773</ele>
        <time>2018-12-28T02:41:02Z</time>
      </trkpt>
      <trkpt lat="36.761730" lon="-114.358270">
        <ele>634.885</ele>
        <time>2018-12-28T02:41:22Z</time>
      </trkpt>
      <trkpt lat="36.761770" lon="-114.358070">
        <ele>634.913</ele>
        <time>2018-12-28T02:41:42Z</time>
      </trkpt>
      <trkpt lat="36.761890" lon="-114.357420">
        <ele>635.608</ele>
        <time>2018-12-28T02:42:02Z</time>
      </trkpt>
      <trkpt lat="36.762020" lon="-114.356720">
        <ele>636.250</ele>
        <time>2018-12-28T02:42:22Z</time>
      </trkpt>
      <trkpt lat="36.762160" lon="-114.355940">
        <ele>636.848</ele>
        <time>2018-12-28T02:42:42Z</time>
      </trkpt>
      <trkpt lat="36.762290" lon="-114.355160">
        <ele>637.393</ele>
        <time>2018-12-28T02:43:02Z</time>
      </trkpt>
      <trkpt lat="36.762530" lon="-114.353860">
        <ele>638.264</ele>
        <time>2018-12-28T02:43:22Z</time>
      </trkpt>
      <trkpt lat="36.762720" lon="-114.352820">
        <ele>638.938</ele>
        <time>2018-12-28T02:43:42Z</time>
      </trkpt>
      <trkpt lat="36.762960" lon="-114.351460">
        <ele>639.052</ele>
        <time>2018-12-28T02:44:02Z</time>
      </trkpt>
      <trkpt lat="36.763050" lon="-114.350920">
        <ele>639.071</ele>
        <time>2018-12-28T02:44:22Z</time>
      </trkpt>
      <trkpt lat="36.763200" lon="-114.350090">
        <ele>638.826</ele>
        <time>2018-12-28T02:44:42Z</time>
      </trkpt>
      <trkpt lat="36.763310" lon="-114.349540">
        <ele>638.073</ele>
        <time>2018-12-28T02:45:02Z</time>
      </trkpt>
      <trkpt lat="36.763520" lon="-114.348420">
        <ele>635.085</ele>
        <time>2018-12-28T02:45:22Z</time>
      </trkpt>
      <trkpt lat="36.763670" lon="-114.347490">
        <ele>637.113</ele>
        <time>2018-12-28T02:45:42Z</time>
      </trkpt>
      <trkpt lat="36.763860" lon="-114.346450">
        <ele>638.808</ele>
        <time>2018-12-28T02:46:02Z</time>
      </trkpt>
      <trkpt lat="36.764230" lon="-114.344350">
        <ele>641.210</ele>
        <time>2018-12-28T02:46:22Z</time>
      </trkpt>
      <trkpt lat="36.764800" lon="-114.341180">
        <ele>644.878</ele>
        <time>2018-12-28T02:46:42Z</time>
      </trkpt>
      <trkpt lat="36.764940" lon="-114.340350">
        <ele>646.093</ele>
        <time>2018-12-28T02:47:02Z</time>
      </trkpt>
      <trkpt lat="36.765320" lon="-114.338270">
        <ele>646.834</ele>
        <time>2018-12-28T02:47:22Z</time>
      </trkpt>
      <trkpt lat="36.766040" lon="-114.334250">
        <ele>647.728</ele>
        <time>2018-12-28T02:47:42Z</time>
      </trkpt>
      <trkpt lat="36.766050" lon="-114.334170">
        <ele>647.922</ele>
        <time>2018-12-28T02:48:02Z</time>
      </trkpt>
      <trkpt lat="36.766240" lon="-114.333100">
        <ele>649.251</ele>
        <time>2018-12-28T02:48:22Z</time>
      </trkpt>
      <trkpt lat="36.766720" lon="-114.330410">
        <ele>650.056</ele>
        <time>2018-12-28T02:48:42Z</time>
      </trkpt>
      <trkpt lat="36.766950" lon="-114.329110">
        <ele>650.838</ele>
        <time>2018-12-28T02:49:02Z</time>
      </trkpt>
      <trkpt lat="36.767030" lon="-114.328670">
        <ele>650.970</ele>
        <time>2018-12-28T02:49:22Z</time>
      </trkpt>
      <trkpt lat="36.767330" lon="-114.326960">
        <ele>651.317</ele>
        <time>2018-12-28T02:49:42Z</time>
      </trkpt>
      <trkpt lat="36.767920" lon="-114.323720">
        <ele>653.108</ele>
        <time>2018-12-28T02:50:02Z</time>
      </trkpt>
      <trkpt lat="36.768080" lon="-114.322790">
        <ele>653.966</ele>
        <time>2018-12-28T02:50:22Z</time>
      </trkpt>
      <trkpt lat="36.768240" lon="-114.321900">
        <ele>654.334</ele>
        <time>2018-12-28T02:50:42Z</time>
      </trkpt>
      <trkpt lat="36.768490" lon="-114.320480">
        <ele>654.619</ele>
        <time>2018-12-28T02:51:02Z</time>
      </trkpt>
      <trkpt lat="36.768990" lon="-114.317680">
        <ele>656.460</ele>
        <time>2018-12-28T02:51:22Z</time>
      </trkpt>
      <trkpt lat="36.769100" lon="-114.317100">
        <ele>656.814</ele>
        <time>2018-12-28T02:51:42Z</time>
      </trkpt>
      <trkpt lat="36.769520" lon="-114.314720">
        <ele>656.938</ele>
        <time>2018-12-28T02:52:02Z</time>
      </trkpt>
      <trkpt lat="36.770120" lon="-114.311370">
        <ele>655.187</ele>
        <time>2018-12-28T02:52:22Z</time>
      </trkpt>
      <trkpt lat="36.770800" lon="-114.307530">
        <ele>653.992</ele>
        <time>2018-12-28T02:52:42Z</time>
      </trkpt>
      <trkpt lat="36.771020" lon="-114.306300">
        <ele>653.324</ele>
        <time>2018-12-28T02:53:02Z</time>
      </trkpt>
      <trkpt lat="36.771360" lon="-114.304400">
        <ele>653.004</ele>
        <time>2018-12-28T02:53:22Z</time>
      </trkpt>
      <trkpt lat="36.771670" lon="-114.302620">
        <ele>652.914</ele>
        <time>2018-12-28T02:53:42Z</time>
      </trkpt>
      <trkpt lat="36.771940" lon="-114.301160">
        <ele>652.908</ele>
        <time>2018-12-28T02:54:02Z</time>
      </trkpt>
      <trkpt lat="36.772270" lon="-114.299270">
        <ele>652.515</ele>
        <time>2018-12-28T02:54:22Z</time>
      </trkpt>
      <trkpt lat="36.772370" lon="-114.298680">
        <ele>653.053</ele>
        <time>2018-12-28T02:54:42Z</time>
      </trkpt>
      <trkpt lat="36.772620" lon="-114.297320">
        <ele>653.078</ele>
        <time>2018-12-28T02:55:02Z</time>
      </trkpt>
      <trkpt lat="36.772890" lon="-114.295750">
        <ele>652.479</ele>
        <time>2018-12-28T02:55:22Z</time>
      </trkpt>
      <trkpt lat="36.773260" lon="-114.293760">
        <ele>647.053</ele>
        <time>2018-12-28T02:55:42Z</time>
      </trkpt>
      <trkpt lat="36.773550" lon="-114.292090">
        <ele>647.187</ele>
        <time>2018-12-28T02:56:02Z</time>
      </trkpt>
      <trkpt lat="36.773680" lon="-114.291350">
        <ele>648.136</ele>
        <time>2018-12-28T02:56:22Z</time>
      </trkpt>
      <trkpt lat="36.773920" lon="-114.289980">
        <ele>647.011</ele>
        <time>2018-12-28T02:56:42Z</time>
      </trkpt>
      <trkpt lat="36.775110" lon="-114.283340">
        <ele>644.615</ele>
        <time>2018-12-28T02:57:02Z</time>
      </trkpt>
      <trkpt lat="36.775250" lon="-114.282550">
        <ele>645.165</ele>
        <time>2018-12-28T02:57:22Z</time>
      </trkpt>
      <trkpt lat="36.775560" lon="-114.280810">
        <ele>646.911</ele>
        <time>2018-12-28T02:57:42Z</time>
      </trkpt>
      <trkpt lat="36.775760" lon="-114.279710">
        <ele>646.808</ele>
        <time>2018-12-28T02:58:02Z</time>
      </trkpt>
      <trkpt lat="36.775790" lon="-114.279540">
        <ele>646.874</ele>
        <time>2018-12-28T02:58:22Z</time>
      </trkpt>
      <trkpt lat="36.775960" lon="-114.278610">
        <ele>647.032</ele>
        <time>2018-12-28T02:58:42Z</time>
      </trkpt>
      <trkpt lat="36.776060" lon="-114.278010">
        <ele>647.327</ele>
        <time>2018-12-28T02:59:02Z</time>
      </trkpt>
      <trkpt lat="36.776190" lon="-114.277280">
        <ele>648.728</ele>
        <time>2018-12-28T02:59:22Z</time>
      </trkpt>
      <trkpt lat="36.776480" lon="-114.275650">
        <ele>653.082</ele>
        <time>2018-12-28T02:59:42Z</time>
      </trkpt>
      <trkpt lat="36.776790" lon="-114.273870">
        <ele>654.396</ele>
        <time>2018-12-28T03:00:02Z</time>
      </trkpt>
      <trkpt lat="36.777150" lon="-114.271870">
        <ele>658.315</ele>
        <time>2018-12-28T03:00:22Z</time>
      </trkpt>
      <trkpt lat="36.777350" lon="-114.270730">
        <ele>659.130</ele>
        <time>2018-12-28T03:00:42Z</time>
      </trkpt>
      <trkpt lat="36.777380" lon="-114.270560">
        <ele>659.266</ele>
        <time>2018-12-28T03:01:02Z</time>
      </trkpt>
      <trkpt lat="36.777450" lon="-114.270200">
        <ele>659.229</ele>
        <time>2018-12-28T03:01:22Z</time>
      </trkpt>
      <trkpt lat="36.777790" lon="-114.268300">
        <ele>661.321</ele>
        <time>2018-12-28T03:01:42Z</time>
      </trkpt>
      <trkpt lat="36.778010" lon="-114.267020">
        <ele>663.608</ele>
        <time>2018-12-28T03:02:02Z</time>
      </trkpt>
      <trkpt lat="36.778370" lon="-114.264970">
        <ele>665.169</ele>
        <time>2018-12-28T03:02:22Z</time>
      </trkpt>
      <trkpt lat="36.778460" lon="-114.264340">
        <ele>665.157</ele>
        <time>2018-12-28T03:02:42Z</time>
      </trkpt>
      <trkpt lat="36.778490" lon="-114.264140">
        <ele>665.192</ele>
        <time>2018-12-28T03:03:02Z</time>
      </trkpt>
      <trkpt lat="36.778520" lon="-114.263880">
        <ele>665.233</ele>
        <time>2018-12-28T03:03:22Z</time>
      </trkpt>
      <trkpt lat="36.778540" lon="-114.263690">
        <ele>665.267</ele>
        <time>2018-12-28T03:03:42Z</time>
      </trkpt>
      <trkpt lat="36.778590" lon="-114.263100">
        <ele>665.251</ele>
        <time>2018-12-28T03:04:02Z</time>
      </trkpt>
      <trkpt lat="36.778620" lon="-114.262740">
        <ele>665.240</ele>
        <time>2018-12-28T03:04:22Z</time>
      </trkpt>
      <trkpt lat="36.778630" lon="-114.262500">
        <ele>665.225</ele>
        <time>2018-12-28T03:04:42Z</time>
      </trkpt>
      <trkpt lat="36.778640" lon="-114.261950">
        <ele>664.815</ele>
        <time>2018-12-28T03:05:02Z</time>
      </trkpt>
      <trkpt lat="36.778640" lon="-114.261930">
        <ele>664.865</ele>
        <time>2018-12-28T03:05:22Z</time>
      </trkpt>
      <trkpt lat="36.778660" lon="-114.261500">
        <ele>661.011</ele>
        <time>2018-12-28T03:05:42Z</time>
      </trkpt>
      <trkpt lat="36.778660" lon="-114.261300">
        <ele>659.908</ele>
        <time>2018-12-28T03:06:02Z</time>
      </trkpt>
      <trkpt lat="36.778650" lon="-114.261070">
        <ele>659.314</ele>
        <time>2018-12-28T03:06:22Z</time>
      </trkpt>
      <trkpt lat="36.778640" lon="-114.260760">
        <ele>658.732</ele>
        <time>2018-12-28T03:06:42Z</time>
      </trkpt>
      <trkpt lat="36.778630" lon="-114.260450">
        <ele>658.817</ele>
        <time>2018-12-28T03:07:02Z</time>
      </trkpt>
      <trkpt lat="36.778610" lon="-114.260200">
        <ele>659.258</ele>
        <time>2018-12-28T03:07:22Z</time>
      </trkpt>
      <trkpt lat="36.778600" lon="-114.260030">
        <ele>659.452</ele>
        <time>2018-12-28T03:07:42Z</time>
      </trkpt>
      <trkpt lat="36.778580" lon="-114.259800">
        <ele>659.536</ele>
        <time>2018-12-28T03:08:02Z</time>
      </trkpt>
      <trkpt lat="36.778560" lon="-114.259540">
        <ele>659.415</ele>
        <time>2018-12-28T03:08:22Z</time>
      </trkpt>
      <trkpt lat="36.778540" lon="-114.259340">
        <ele>658.240</ele>
        <time>2018-12-28T03:08:42Z</time>
      </trkpt>
      <trkpt lat="36.778510" lon="-114.259110">
        <ele>654.355</ele>
        <time>2018-12-28T03:09:02Z</time>
      </trkpt>
      <trkpt lat="36.778490" lon="-114.258870">
        <ele>651.007</ele>
        <time>2018-12-28T03:09:22Z</time>
      </trkpt>
      <trkpt lat="36.778470" lon="-114.258690">
        <ele>649.517</ele>
        <time>2018-12-28T03:09:42Z</time>
      </trkpt>
      <trkpt lat="36.778440" lon="-114.258490">
        <ele>650.708</ele>
        <time>2018-12-28T03:10:02Z</time>
      </trkpt>
      <trkpt lat="36.778400" lon="-114.258270">
        <ele>652.358</ele>
        <time>2018-12-28T03:10:22Z</time>
      </trkpt>
      <trkpt lat="36.778380" lon="-114.258090">
        <ele>652.996</ele>
        <time>2018-12-28T03:10:42Z</time>
      </trkpt>
      <trkpt lat="36.778270" lon="-114.257510">
        <ele>648.641</ele>
        <time>2018-12-28T03:11:02Z</time>
      </trkpt>
      <trkpt lat="36.778160" lon="-114.256990">
        <ele>643.692</ele>
        <time>2018-12-28T03:11:22Z</time>
      </trkpt>
      <trkpt lat="36.778040" lon="-114.256440">
        <ele>642.816</ele>
        <time>2018-12-28T03:11:42Z</time>
      </trkpt>
      <trkpt lat="36.777950" lon="-114.256110">
        <ele>641.250</ele>
        <time>2018-12-28T03:12:02Z</time>
      </trkpt>
      <trkpt lat="36.777880" lon="-114.255850">
        <ele>638.579</ele>
        <time>2018-12-28T03:12:22Z</time>
      </trkpt>
      <trkpt lat="36.777790" lon="-114.255560">
        <ele>637.024</ele>
        <time>2018-12-28T03:12:42Z</time>
      </trkpt>
      <trkpt lat="36.777640" lon="-114.255070">
        <ele>635.825</ele>
        <time>2018-12-28T03:13:02Z</time>
      </trkpt>
      <trkpt lat="36.777550" lon="-114.254810">
        <ele>632.926</ele>
        <time>2018-12-28T03:13:22Z</time>
      </trkpt>
      <trkpt lat="36.777450" lon="-114.254530">
        <ele>631.708</ele>
        <time>2018-12-28T03:13:42Z</time>
      </trkpt>
      <trkpt lat="36.777340" lon="-114.254240">
        <ele>630.408</ele>
        <time>2018-12-28T03:14:02Z</time>
      </trkpt>
      <trkpt lat="36.777200" lon="-114.253860">
        <ele>629.745</ele>
        <time>2018-12-28T03:14:22Z</time>
      </trkpt>
      <trkpt lat="36.777060" lon="-114.253540">
        <ele>628.643</ele>
        <time>2018-12-28T03:14:42Z</time>
      </trkpt>
      <trkpt lat="36.776920" lon="-114.253220">
        <ele>625.978</ele>
        <time>2018-12-28T03:15:02Z</time>
      </trkpt>
      <trkpt lat="36.776810" lon="-114.252980">
        <ele>625.729</ele>
        <time>2018-12-28T03:15:22Z</time>
      </trkpt>
      <trkpt lat="36.776630" lon="-114.252610">
        <ele>623.733</ele>
        <time>2018-12-28T03:15:42Z</time>
      </trkpt>
      <trkpt lat="36.776310" lon="-114.251970">
        <ele>618.247</ele>
        <time>2018-12-28T03:16:02Z</time>
      </trkpt>
      <trkpt lat="36.775870" lon="-114.251090">
        <ele>614.196</ele>
        <time>2018-12-28T03:16:22Z</time>
      </trkpt>
      <trkpt lat="36.775700" lon="-114.250750">
        <ele>613.521</ele>
        <time>2018-12-28T03:16:42Z</time>
      </trkpt>
      <trkpt lat="36.775620" lon="-114.250590">
        <ele>612.362</ele>
        <time>2018-12-28T03:17:02Z</time>
      </trkpt>
      <trkpt lat="36.775430" lon="-114.250180">
        <ele>608.483</ele>
        <time>2018-12-28T03:17:22Z</time>
      </trkpt>
      <trkpt lat="36.775160" lon="-114.249590">
        <ele>603.011</ele>
        <time>2018-12-28T03:17:42Z</time>
      </trkpt>
      <trkpt lat="36.774900" lon="-114.248970">
        <ele>601.508</ele>
        <time>2018-12-28T03:18:02Z</time>
      </trkpt>
      <trkpt lat="36.774770" lon="-114.248640">
        <ele>599.949</ele>
        <time>2018-12-28T03:18:22Z</time>
      </trkpt>
      <trkpt lat="36.774630" lon="-114.248250">
        <ele>598.717</ele>
        <time>2018-12-28T03:18:42Z</time>
      </trkpt>
      <trkpt lat="36.774470" lon="-114.247740">
        <ele>594.492</ele>
        <time>2018-12-28T03:19:02Z</time>
      </trkpt>
      <trkpt lat="36.773800" lon="-114.245670">
        <ele>582.623</ele>
        <time>2018-12-28T03:19:22Z</time>
      </trkpt>
      <trkpt lat="36.773100" lon="-114.243510">
        <ele>573.557</ele>
        <time>2018-12-28T03:19:42Z</time>
      </trkpt>
      <trkpt lat="36.772400" lon="-114.241370">
        <ele>568.931</ele>
        <time>2018-12-28T03:20:02Z</time>
      </trkpt>
      <trkpt lat="36.771820" lon="-114.239540">
        <ele>563.680</ele>
        <time>2018-12-28T03:20:22Z</time>
      </trkpt>
      <trkpt lat="36.771650" lon="-114.239000">
        <ele>562.375</ele>
        <time>2018-12-28T03:20:42Z</time>
      </trkpt>
      <trkpt lat="36.771330" lon="-114.237980">
        <ele>562.718</ele>
        <time>2018-12-28T03:21:02Z</time>
      </trkpt>
      <trkpt lat="36.771120" lon="-114.237310">
        <ele>561.898</ele>
        <time>2018-12-28T03:21:22Z</time>
      </trkpt>
      <trkpt lat="36.770810" lon="-114.236250">
        <ele>560.317</ele>
        <time>2018-12-28T03:21:42Z</time>
      </trkpt>
      <trkpt lat="36.770680" lon="-114.235770">
        <ele>561.308</ele>
        <time>2018-12-28T03:22:02Z</time>
      </trkpt>
      <trkpt lat="36.770570" lon="-114.235350">
        <ele>558.574</ele>
        <time>2018-12-28T03:22:22Z</time>
      </trkpt>
      <trkpt lat="36.770440" lon="-114.234750">
        <ele>555.842</ele>
        <time>2018-12-28T03:22:42Z</time>
      </trkpt>
      <trkpt lat="36.770380" lon="-114.234470">
        <ele>553.187</ele>
        <time>2018-12-28T03:23:02Z</time>
      </trkpt>
      <trkpt lat="36.770130" lon="-114.233330">
        <ele>551.868</ele>
        <time>2018-12-28T03:23:22Z</time>
      </trkpt>
      <trkpt lat="36.770070" lon="-114.233030">
        <ele>551.132</ele>
        <time>2018-12-28T03:23:42Z</time>
      </trkpt>
      <trkpt lat="36.770000" lon="-114.232690">
        <ele>551.116</ele>
        <time>2018-12-28T03:24:02Z</time>
      </trkpt>
      <trkpt lat="36.769970" lon="-114.232500">
        <ele>551.655</ele>
        <time>2018-12-28T03:24:22Z</time>
      </trkpt>
      <trkpt lat="36.769900" lon="-114.232130">
        <ele>551.970</ele>
        <time>2018-12-28T03:24:42Z</time>
      </trkpt>
      <trkpt lat="36.769820" lon="-114.231610">
        <ele>551.696</ele>
        <time>2018-12-28T03:25:02Z</time>
      </trkpt>
      <trkpt lat="36.769750" lon="-114.231180">
        <ele>550.931</ele>
        <time>2018-12-28T03:25:22Z</time>
      </trkpt>
      <trkpt lat="36.769600" lon="-114.230090">
        <ele>549.524</ele>
        <time>2018-12-28T03:25:42Z</time>
      </trkpt>
      <trkpt lat="36.769540" lon="-114.229610">
        <ele>549.508</ele>
        <time>2018-12-28T03:26:02Z</time>
      </trkpt>
      <trkpt lat="36.769430" lon="-114.228600">
        <ele>543.292</ele>
        <time>2018-12-28T03:26:22Z</time>
      </trkpt>
      <trkpt lat="36.769370" lon="-114.228090">
        <ele>540.890</ele>
        <time>2018-12-28T03:26:42Z</time>
      </trkpt>
      <trkpt lat="36.769350" lon="-114.227950">
        <ele>540.785</ele>
        <time>2018-12-28T03:27:02Z</time>
      </trkpt>
      <trkpt lat="36.769270" lon="-114.227350">
        <ele>540.736</ele>
        <time>2018-12-28T03:27:22Z</time>
      </trkpt>
      <trkpt lat="36.768780" lon="-114.223350">
        <ele>530.480</ele>
        <time>2018-12-28T03:27:42Z</time>
      </trkpt>
      <trkpt lat="36.768300" lon="-114.219430">
        <ele>519.384</ele>
        <time>2018-12-28T03:28:02Z</time>
      </trkpt>
      <trkpt lat="36.768100" lon="-114.217800">
        <ele>517.663</ele>
        <time>2018-12-28T03:28:22Z</time>
      </trkpt>
      <trkpt lat="36.768010" lon="-114.217100">
        <ele>519.828</ele>
        <time>2018-12-28T03:28:42Z</time>
      </trkpt>
      <trkpt lat="36.767570" lon="-114.213540">
        <ele>519.638</ele>
        <time>2018-12-28T03:29:02Z</time>
      </trkpt>
      <trkpt lat="36.767390" lon="-114.212030">
        <ele>515.870</ele>
        <time>2018-12-28T03:29:22Z</time>
      </trkpt>
      <trkpt lat="36.767260" lon="-114.210930">
        <ele>514.417</ele>
        <time>2018-12-28T03:29:42Z</time>
      </trkpt>
      <trkpt lat="36.767150" lon="-114.210110">
        <ele>515.408</ele>
        <time>2018-12-28T03:30:02Z</time>
      </trkpt>
      <trkpt lat="36.766920" lon="-114.208340">
        <ele>521.556</ele>
        <time>2018-12-28T03:30:22Z</time>
      </trkpt>
      <trkpt lat="36.766440" lon="-114.204530">
        <ele>521.234</ele>
        <time>2018-12-28T03:30:42Z</time>
      </trkpt>
      <trkpt lat="36.766360" lon="-114.203810">
        <ele>519.029</ele>
        <time>2018-12-28T03:31:02Z</time>
      </trkpt>
      <trkpt lat="36.766220" lon="-114.202620">
        <ele>509.530</ele>
        <time>2018-12-28T03:31:22Z</time>
      </trkpt>
      <trkpt lat="36.766140" lon="-114.201930">
        <ele>506.754</ele>
        <time>2018-12-28T03:31:42Z</time>
      </trkpt>
      <trkpt lat="36.765890" lon="-114.199870">
        <ele>501.818</ele>
        <time>2018-12-28T03:32:02Z</time>
      </trkpt>
      <trkpt lat="36.765500" lon="-114.196730">
        <ele>494.637</ele>
        <time>2018-12-28T03:32:22Z</time>
      </trkpt>
      <trkpt lat="36.765330" lon="-114.195310">
        <ele>489.422</ele>
        <time>2018-12-28T03:32:42Z</time>
      </trkpt>
      <trkpt lat="36.765250" lon="-114.194670">
        <ele>489.843</ele>
        <time>2018-12-28T03:33:02Z</time>
      </trkpt>
      <trkpt lat="36.765170" lon="-114.194000">
        <ele>491.064</ele>
        <time>2018-12-28T03:33:22Z</time>
      </trkpt>
      <trkpt lat="36.765100" lon="-114.193470">
        <ele>489.910</ele>
        <time>2018-12-28T03:33:42Z</time>
      </trkpt>
      <trkpt lat="36.764980" lon="-114.192510">
        <ele>486.308</ele>
        <time>2018-12-28T03:34:02Z</time>
      </trkpt>
      <trkpt lat="36.764840" lon="-114.191380">
        <ele>485.947</ele>
        <time>2018-12-28T03:34:22Z</time>
      </trkpt>
      <trkpt lat="36.764700" lon="-114.190290">
        <ele>484.615</ele>
        <time>2018-12-28T03:34:42Z</time>
      </trkpt>
      <trkpt lat="36.764600" lon="-114.189350">
        <ele>478.870</ele>
        <time>2018-12-28T03:35:02Z</time>
      </trkpt>
      <trkpt lat="36.764410" lon="-114.187840">
        <ele>471.881</ele>
        <time>2018-12-28T03:35:22Z</time>
      </trkpt>
      <trkpt lat="36.764220" lon="-114.186300">
        <ele>468.915</ele>
        <time>2018-12-28T03:35:42Z</time>
      </trkpt>
      <trkpt lat="36.764030" lon="-114.184790">
        <ele>473.199</ele>
        <time>2018-12-28T03:36:02Z</time>
      </trkpt>
      <trkpt lat="36.763800" lon="-114.182930">
        <ele>473.588</ele>
        <time>2018-12-28T03:36:22Z</time>
      </trkpt>
      <trkpt lat="36.763720" lon="-114.182280">
        <ele>474.363</ele>
        <time>2018-12-28T03:36:42Z</time>
      </trkpt>
      <trkpt lat="36.763480" lon="-114.180350">
        <ele>475.165</ele>
        <time>2018-12-28T03:37:02Z</time>
      </trkpt>
      <trkpt lat="36.763370" lon="-114.179380">
        <ele>476.768</ele>
        <time>2018-12-28T03:37:22Z</time>
      </trkpt>
      <trkpt lat="36.763330" lon="-114.179030">
        <ele>477.014</ele>
        <time>2018-12-28T03:37:42Z</time>
      </trkpt>
      <trkpt lat="36.763290" lon="-114.178650">
        <ele>477.108</ele>
        <time>2018-12-28T03:38:02Z</time>
      </trkpt>
      <trkpt lat="36.763260" lon="-114.178300">
        <ele>476.519</ele>
        <time>2018-12-28T03:38:22Z</time>
      </trkpt>
      <trkpt lat="36.763240" lon="-114.177760">
        <ele>476.197</ele>
        <time>2018-12-28T03:38:42Z</time>
      </trkpt>
      <trkpt lat="36.763220" lon="-114.177310">
        <ele>475.682</ele>
        <time>2018-12-28T03:39:02Z</time>
      </trkpt>
      <trkpt lat="36.763220" lon="-114.176760">
        <ele>476.263</ele>
        <time>2018-12-28T03:39:22Z</time>
      </trkpt>
      <trkpt lat="36.763220" lon="-114.176450">
        <ele>476.227</ele>
        <time>2018-12-28T03:39:42Z</time>
      </trkpt>
      <trkpt lat="36.763230" lon="-114.176100">
        <ele>476.371</ele>
        <time>2018-12-28T03:40:02Z</time>
      </trkpt>
      <trkpt lat="36.763250" lon="-114.175830">
        <ele>475.950</ele>
        <time>2018-12-28T03:40:22Z</time>
      </trkpt>
      <trkpt lat="36.763260" lon="-114.175540">
        <ele>475.445</ele>
        <time>2018-12-28T03:40:42Z</time>
      </trkpt>
      <trkpt lat="36.763300" lon="-114.175000">
        <ele>474.432</ele>
        <time>2018-12-28T03:41:02Z</time>
      </trkpt>
      <trkpt lat="36.763340" lon="-114.174600">
        <ele>474.992</ele>
        <time>2018-12-28T03:41:22Z</time>
      </trkpt>
      <trkpt lat="36.763370" lon="-114.174340">
        <ele>477.511</ele>
        <time>2018-12-28T03:41:42Z</time>
      </trkpt>
      <trkpt lat="36.763400" lon="-114.174100">
        <ele>478.308</ele>
        <time>2018-12-28T03:42:02Z</time>
      </trkpt>
      <trkpt lat="36.763490" lon="-114.173530">
        <ele>478.216</ele>
        <time>2018-12-28T03:42:22Z</time>
      </trkpt>
      <trkpt lat="36.763540" lon="-114.173210">
        <ele>479.944</ele>
        <time>2018-12-28T03:42:42Z</time>
      </trkpt>
      <trkpt lat="36.763590" lon="-114.172940">
        <ele>480.819</ele>
        <time>2018-12-28T03:43:02Z</time>
      </trkpt>
      <trkpt lat="36.763670" lon="-114.172540">
        <ele>478.960</ele>
        <time>2018-12-28T03:43:22Z</time>
      </trkpt>
      <trkpt lat="36.763770" lon="-114.172150">
        <ele>477.484</ele>
        <time>2018-12-28T03:43:42Z</time>
      </trkpt>
      <trkpt lat="36.763870" lon="-114.171740">
        <ele>475.658</ele>
        <time>2018-12-28T03:44:02Z</time>
      </trkpt>
      <trkpt lat="36.764020" lon="-114.171130">
        <ele>478.467</ele>
        <time>2018-12-28T03:44:22Z</time>
      </trkpt>
      <trkpt lat="36.764150" lon="-114.170700">
        <ele>478.642</ele>
        <time>2018-12-28T03:44:42Z</time>
      </trkpt>
      <trkpt lat="36.764320" lon="-114.170190">
        <ele>479.634</ele>
        <time>2018-12-28T03:45:02Z</time>
      </trkpt>
      <trkpt lat="36.764680" lon="-114.169300">
        <ele>479.155</ele>
        <time>2018-12-28T03:45:22Z</time>
      </trkpt>
      <trkpt lat="36.764850" lon="-114.168880">
        <ele>477.510</ele>
        <time>2018-12-28T03:45:42Z</time>
      </trkpt>
      <trkpt lat="36.764990" lon="-114.168550">
        <ele>476.108</ele>
        <time>2018-12-28T03:46:02Z</time>
      </trkpt>
      <trkpt lat="36.765210" lon="-114.168100">
        <ele>476.566</ele>
        <time>2018-12-28T03:46:22Z</time>
      </trkpt>
      <trkpt lat="36.765280" lon="-114.167940">
        <ele>475.734</ele>
        <time>2018-12-28T03:46:42Z</time>
      </trkpt>
      <trkpt lat="36.765380" lon="-114.167750">
        <ele>476.229</ele>
        <time>2018-12-28T03:47:02Z</time>
      </trkpt>
      <trkpt lat="36.765530" lon="-114.167450">
        <ele>477.620</ele>
        <time>2018-12-28T03:47:22Z</time>
      </trkpt>
      <trkpt lat="36.765810" lon="-114.166940">
        <ele>478.924</ele>
        <time>2018-12-28T03:47:42Z</time>
      </trkpt>
      <trkpt lat="36.766010" lon="-114.166600">
        <ele>479.758</ele>
        <time>2018-12-28T03:48:02Z</time>
      </trkpt>
      <trkpt lat="36.766270" lon="-114.166160">
        <ele>480.587</ele>
        <time>2018-12-28T03:48:22Z</time>
      </trkpt>
      <trkpt lat="36.766540" lon="-114.165710">
        <ele>478.142</ele>
        <time>2018-12-28T03:48:42Z</time>
      </trkpt>
      <trkpt lat="36.766870" lon="-114.165150">
        <ele>477.734</ele>
        <time>2018-12-28T03:49:02Z</time>
      </trkpt>
      <trkpt lat="36.767520" lon="-114.164080">
        <ele>477.255</ele>
        <time>2018-12-28T03:49:22Z</time>
      </trkpt>
      <trkpt lat="36.767980" lon="-114.163300">
        <ele>479.510</ele>
        <time>2018-12-28T03:49:42Z</time>
      </trkpt>
      <trkpt lat="36.768490" lon="-114.162450">
        <ele>478.908</ele>
        <time>2018-12-28T03:50:02Z</time>
      </trkpt>
      <trkpt lat="36.769050" lon="-114.161510">
        <ele>478.056</ele>
        <time>2018-12-28T03:50:22Z</time>
      </trkpt>
      <trkpt lat="36.769770" lon="-114.160300">
        <ele>474.914</ele>
        <time>2018-12-28T03:50:42Z</time>
      </trkpt>
      <trkpt lat="36.770100" lon="-114.159730">
        <ele>475.129</ele>
        <time>2018-12-28T03:51:02Z</time>
      </trkpt>
      <trkpt lat="36.770350" lon="-114.159270">
        <ele>475.020</ele>
        <time>2018-12-28T03:51:22Z</time>
      </trkpt>
      <trkpt lat="36.770580" lon="-114.158810">
        <ele>475.854</ele>
        <time>2018-12-28T03:51:42Z</time>
      </trkpt>
      <trkpt lat="36.770750" lon="-114.158460">
        <ele>476.878</ele>
        <time>2018-12-28T03:52:02Z</time>
      </trkpt>
      <trkpt lat="36.770960" lon="-114.157970">
        <ele>476.737</ele>
        <time>2018-12-28T03:52:22Z</time>
      </trkpt>
      <trkpt lat="36.771150" lon="-114.157490">
        <ele>476.812</ele>
        <time>2018-12-28T03:52:42Z</time>
      </trkpt>
      <trkpt lat="36.771350" lon="-114.157000">
        <ele>478.135</ele>
        <time>2018-12-28T03:53:02Z</time>
      </trkpt>
      <trkpt lat="36.771450" lon="-114.156720">
        <ele>479.386</ele>
        <time>2018-12-28T03:53:22Z</time>
      </trkpt>
      <trkpt lat="36.771670" lon="-114.156130">
        <ele>481.214</ele>
        <time>2018-12-28T03:53:42Z</time>
      </trkpt>
      <trkpt lat="36.771850" lon="-114.155650">
        <ele>480.008</ele>
        <time>2018-12-28T03:54:02Z</time>
      </trkpt>
      <trkpt lat="36.772230" lon="-114.154650">
        <ele>478.046</ele>
        <time>2018-12-28T03:54:22Z</time>
      </trkpt>
      <trkpt lat="36.772510" lon="-114.153900">
        <ele>478.634</ele>
        <time>2018-12-28T03:54:42Z</time>
      </trkpt>
      <trkpt lat="36.772890" lon="-114.152940">
        <ele>478.279</ele>
        <time>2018-12-28T03:55:02Z</time>
      </trkpt>
      <trkpt lat="36.773170" lon="-114.152210">
        <ele>480.190</ele>
        <time>2018-12-28T03:55:22Z</time>
      </trkpt>
      <trkpt lat="36.773400" lon="-114.151600">
        <ele>478.354</ele>
        <time>2018-12-28T03:55:42Z</time>
      </trkpt>
      <trkpt lat="36.773540" lon="-114.151250">
        <ele>478.628</ele>
        <time>2018-12-28T03:56:02Z</time>
      </trkpt>
      <trkpt lat="36.773630" lon="-114.151030">
        <ele>476.837</ele>
        <time>2018-12-28T03:56:22Z</time>
      </trkpt>
      <trkpt lat="36.773850" lon="-114.150530">
        <ele>475.332</ele>
        <time>2018-12-28T03:56:42Z</time>
      </trkpt>
      <trkpt lat="36.774130" lon="-114.149970">
        <ele>475.651</ele>
        <time>2018-12-28T03:57:02Z</time>
      </trkpt>
      <trkpt lat="36.774370" lon="-114.149500">
        <ele>477.001</ele>
        <time>2018-12-28T03:57:22Z</time>
      </trkpt>
      <trkpt lat="36.774610" lon="-114.149080">
        <ele>477.411</ele>
        <time>2018-12-28T03:57:42Z</time>
      </trkpt>
      <trkpt lat="36.774750" lon="-114.148840">
        <ele>477.208</ele>
        <time>2018-12-28T03:58:02Z</time>
      </trkpt>
      <trkpt lat="36.774870" lon="-114.148650">
        <ele>478.268</ele>
        <time>2018-12-28T03:58:22Z</time>
      </trkpt>
      <trkpt lat="36.775020" lon="-114.148410">
        <ele>479.276</ele>
        <time>2018-12-28T03:58:42Z</time>
      </trkpt>
      <trkpt lat="36.775220" lon="-114.148100">
        <ele>478.571</ele>
        <time>2018-12-28T03:59:02Z</time>
      </trkpt>
      <trkpt lat="36.775480" lon="-114.147730">
        <ele>476.152</ele>
        <time>2018-12-28T03:59:22Z</time>
      </trkpt>
      <trkpt lat="36.778130" lon="-114.143900">
        <ele>477.856</ele>
        <time>2018-12-28T03:59:42Z</time>
      </trkpt>
      <trkpt lat="36.778450" lon="-114.143450">
        <ele>474.630</ele>
        <time>2018-12-28T04:00:02Z</time>
      </trkpt>
      <trkpt lat="36.779980" lon="-114.141230">
        <ele>472.829</ele>
        <time>2018-12-28T04:00:22Z</time>
      </trkpt>
      <trkpt lat="36.780030" lon="-114.141150">
        <ele>473.224</ele>
        <time>2018-12-28T04:00:42Z</time>
      </trkpt>
      <trkpt lat="36.780170" lon="-114.140960">
        <ele>472.555</ele>
        <time>2018-12-28T04:01:02Z</time>
      </trkpt>
      <trkpt lat="36.782870" lon="-114.137090">
        <ele>474.307</ele>
        <time>2018-12-28T04:01:22Z</time>
      </trkpt>
      <trkpt lat="36.782890" lon="-114.137060">
        <ele>474.317</ele>
        <time>2018-12-28T04:01:42Z</time>
      </trkpt>
      <trkpt lat="36.783100" lon="-114.136760">
        <ele>474.408</ele>
        <time>2018-12-28T04:02:02Z</time>
      </trkpt>
      <trkpt lat="36.783380" lon="-114.136340">
        <ele>473.588</ele>
        <time>2018-12-28T04:02:22Z</time>
      </trkpt>
      <trkpt lat="36.783680" lon="-114.135920">
        <ele>473.816</ele>
        <time>2018-12-28T04:02:42Z</time>
      </trkpt>
      <trkpt lat="36.784070" lon="-114.135340">
        <ele>475.351</ele>
        <time>2018-12-28T04:03:02Z</time>
      </trkpt>
      <trkpt lat="36.784140" lon="-114.135250">
        <ele>475.582</ele>
        <time>2018-12-28T04:03:22Z</time>
      </trkpt>
      <trkpt lat="36.784570" lon="-114.134630">
        <ele>475.686</ele>
        <time>2018-12-28T04:03:42Z</time>
      </trkpt>
      <trkpt lat="36.785350" lon="-114.133500">
        <ele>475.720</ele>
        <time>2018-12-28T04:04:02Z</time>
      </trkpt>
      <trkpt lat="36.786080" lon="-114.132450">
        <ele>475.849</ele>
        <time>2018-12-28T04:04:22Z</time>
      </trkpt>
      <trkpt lat="36.786530" lon="-114.131790">
        <ele>475.864</ele>
        <time>2018-12-28T04:04:42Z</time>
      </trkpt>
      <trkpt lat="36.787150" lon="-114.130900">
        <ele>476.952</ele>
        <time>2018-12-28T04:05:02Z</time>
      </trkpt>
      <trkpt lat="36.787610" lon="-114.130220">
        <ele>477.853</ele>
        <time>2018-12-28T04:05:22Z</time>
      </trkpt>
      <trkpt lat="36.788400" lon="-114.129080">
        <ele>477.208</ele>
        <time>2018-12-28T04:05:42Z</time>
      </trkpt>
      <trkpt lat="36.790550" lon="-114.125970">
        <ele>479.208</ele>
        <time>2018-12-28T04:06:02Z</time>
      </trkpt>
      <trkpt lat="36.791820" lon="-114.124130">
        <ele>478.588</ele>
        <time>2018-12-28T04:06:22Z</time>
      </trkpt>
      <trkpt lat="36.792790" lon="-114.122730">
        <ele>479.286</ele>
        <time>2018-12-28T04:06:42Z</time>
      </trkpt>
      <trkpt lat="36.793120" lon="-114.122260">
        <ele>480.271</ele>
        <time>2018-12-28T04:07:02Z</time>
      </trkpt>
      <trkpt lat="36.793200" lon="-114.122140">
        <ele>481.162</ele>
        <time>2018-12-28T04:07:22Z</time>
      </trkpt>
      <trkpt lat="36.793400" lon="-114.121850">
        <ele>481.396</ele>
        <time>2018-12-28T04:07:42Z</time>
      </trkpt>
      <trkpt lat="36.793560" lon="-114.121620">
        <ele>481.340</ele>
        <time>2018-12-28T04:08:02Z</time>
      </trkpt>
      <trkpt lat="36.793720" lon="-114.121400">
        <ele>481.199</ele>
        <time>2018-12-28T04:08:22Z</time>
      </trkpt>
      <trkpt lat="36.794070" lon="-114.120890">
        <ele>480.894</ele>
        <time>2018-12-28T04:08:42Z</time>
      </trkpt>
      <trkpt lat="36.794690" lon="-114.119990">
        <ele>481.416</ele>
        <time>2018-12-28T04:09:02Z</time>
      </trkpt>
      <trkpt lat="36.796010" lon="-114.118080">
        <ele>481.776</ele>
        <time>2018-12-28T04:09:22Z</time>
      </trkpt>
      <trkpt lat="36.797220" lon="-114.116330">
        <ele>481.913</ele>
        <time>2018-12-28T04:09:42Z</time>
      </trkpt>
      <trkpt lat="36.797670" lon="-114.115680">
        <ele>482.608</ele>
        <time>2018-12-28T04:10:02Z</time>
      </trkpt>
      <trkpt lat="36.798240" lon="-114.114860">
        <ele>484.644</ele>
        <time>2018-12-28T04:10:22Z</time>
      </trkpt>
      <trkpt lat="36.799650" lon="-114.112830">
        <ele>487.812</ele>
        <time>2018-12-28T04:10:42Z</time>
      </trkpt>
      <trkpt lat="36.799870" lon="-114.112510">
        <ele>489.277</ele>
        <time>2018-12-28T04:11:02Z</time>
      </trkpt>
      <trkpt lat="36.800480" lon="-114.111630">
        <ele>489.018</ele>
        <time>2018-12-28T04:11:22Z</time>
      </trkpt>
      <trkpt lat="36.800550" lon="-114.111530">
        <ele>488.882</ele>
        <time>2018-12-28T04:11:42Z</time>
      </trkpt>
      <trkpt lat="36.800770" lon="-114.111220">
        <ele>487.816</ele>
        <time>2018-12-28T04:12:02Z</time>
      </trkpt>
      <trkpt lat="36.800880" lon="-114.111050">
        <ele>487.385</ele>
        <time>2018-12-28T04:12:22Z</time>
      </trkpt>
      <trkpt lat="36.801390" lon="-114.110320">
        <ele>489.370</ele>
        <time>2018-12-28T04:12:42Z</time>
      </trkpt>
      <trkpt lat="36.801480" lon="-114.110180">
        <ele>489.624</ele>
        <time>2018-12-28T04:13:02Z</time>
      </trkpt>
      <trkpt lat="36.801550" lon="-114.110070">
        <ele>489.904</ele>
        <time>2018-12-28T04:13:22Z</time>
      </trkpt>
      <trkpt lat="36.801670" lon="-114.109870">
        <ele>490.214</ele>
        <time>2018-12-28T04:13:42Z</time>
      </trkpt>
      <trkpt lat="36.801760" lon="-114.109730">
        <ele>490.608</ele>
        <time>2018-12-28T04:14:02Z</time>
      </trkpt>
      <trkpt lat="36.801820" lon="-114.109630">
        <ele>490.835</ele>
        <time>2018-12-28T04:14:22Z</time>
      </trkpt>
      <trkpt lat="36.801950" lon="-114.109400">
        <ele>491.663</ele>
        <time>2018-12-28T04:14:42Z</time>
      </trkpt>
      <trkpt lat="36.802130" lon="-114.109080">
        <ele>493.348</ele>
        <time>2018-12-28T04:15:02Z</time>
      </trkpt>
      <trkpt lat="36.802250" lon="-114.108840">
        <ele>494.559</ele>
        <time>2018-12-28T04:15:22Z</time>
      </trkpt>
      <trkpt lat="36.802370" lon="-114.108620">
        <ele>495.473</ele>
        <time>2018-12-28T04:15:42Z</time>
      </trkpt>
      <trkpt lat="36.802460" lon="-114.108440">
        <ele>495.787</ele>
        <time>2018-12-28T04:16:02Z</time>
      </trkpt>
      <trkpt lat="36.802560" lon="-114.108250">
        <ele>495.726</ele>
        <time>2018-12-28T04:16:22Z</time>
      </trkpt>
      <trkpt lat="36.802710" lon="-114.107910">
        <ele>496.791</ele>
        <time>2018-12-28T04:16:42Z</time>
      </trkpt>
      <trkpt lat="36.802770" lon="-114.107780">
        <ele>496.591</ele>
        <time>2018-12-28T04:17:02Z</time>
      </trkpt>
      <trkpt lat="36.802950" lon="-114.107380">
        <ele>495.781</ele>
        <time>2018-12-28T04:17:22Z</time>
      </trkpt>
      <trkpt lat="36.802980" lon="-114.107290">
        <ele>495.619</ele>
        <time>2018-12-28T04:17:42Z</time>
      </trkpt>
      <trkpt lat="36.803010" lon="-114.107220">
        <ele>495.508</ele>
        <time>2018-12-28T04:18:02Z</time>
      </trkpt>
      <trkpt lat="36.803020" lon="-114.107200">
        <ele>495.562</ele>
        <time>2018-12-28T04:18:22Z</time>
      </trkpt>
      <trkpt lat="36.803070" lon="-114.107070">
        <ele>495.640</ele>
        <time>2018-12-28T04:18:42Z</time>
      </trkpt>
      <trkpt lat="36.803140" lon="-114.106900">
        <ele>496.135</ele>
        <time>2018-12-28T04:19:02Z</time>
      </trkpt>
      <trkpt lat="36.803220" lon="-114.106680">
        <ele>496.786</ele>
        <time>2018-12-28T04:19:22Z</time>
      </trkpt>
      <trkpt lat="36.803300" lon="-114.106450">
        <ele>496.840</ele>
        <time>2018-12-28T04:19:42Z</time>
      </trkpt>
      <trkpt lat="36.803390" lon="-114.106190">
        <ele>496.524</ele>
        <time>2018-12-28T04:20:02Z</time>
      </trkpt>
      <trkpt lat="36.803490" lon="-114.105910">
        <ele>496.623</ele>
        <time>2018-12-28T04:20:22Z</time>
      </trkpt>
      <trkpt lat="36.803530" lon="-114.105770">
        <ele>496.468</ele>
        <time>2018-12-28T04:20:42Z</time>
      </trkpt>
      <trkpt lat="36.803610" lon="-114.105540">
        <ele>496.463</ele>
        <time>2018-12-28T04:21:02Z</time>
      </trkpt>
      <trkpt lat="36.803720" lon="-114.105150">
        <ele>496.544</ele>
        <time>2018-12-28T04:21:22Z</time>
      </trkpt>
      <trkpt lat="36.803750" lon="-114.105030">
        <ele>496.618</ele>
        <time>2018-12-28T04:21:42Z</time>
      </trkpt>
      <trkpt lat="36.803780" lon="-114.104910">
        <ele>496.608</ele>
        <time>2018-12-28T04:22:02Z</time>
      </trkpt>
      <trkpt lat="36.803850" lon="-114.104660">
        <ele>497.059</ele>
        <time>2018-12-28T04:22:22Z</time>
      </trkpt>
      <trkpt lat="36.803880" lon="-114.104530">
        <ele>497.287</ele>
        <time>2018-12-28T04:22:42Z</time>
      </trkpt>
      <trkpt lat="36.803950" lon="-114.104270">
        <ele>497.662</ele>
        <time>2018-12-28T04:23:02Z</time>
      </trkpt>
      <trkpt lat="36.804010" lon="-114.103980">
        <ele>497.613</ele>
        <time>2018-12-28T04:23:22Z</time>
      </trkpt>
      <trkpt lat="36.804090" lon="-114.103580">
        <ele>497.687</ele>
        <time>2018-12-28T04:23:42Z</time>
      </trkpt>
      <trkpt lat="36.804260" lon="-114.102780">
        <ele>497.681</ele>
        <time>2018-12-28T04:24:02Z</time>
      </trkpt>
      <trkpt lat="36.804440" lon="-114.101890">
        <ele>497.760</ele>
        <time>2018-12-28T04:24:22Z</time>
      </trkpt>
      <trkpt lat="36.804480" lon="-114.101720">
        <ele>497.795</ele>
        <time>2018-12-28T04:24:42Z</time>
      </trkpt>
      <trkpt lat="36.804560" lon="-114.101330">
        <ele>497.464</ele>
        <time>2018-12-28T04:25:02Z</time>
      </trkpt>
      <trkpt lat="36.804680" lon="-114.100750">
        <ele>496.406</ele>
        <time>2018-12-28T04:25:22Z</time>
      </trkpt>
      <trkpt lat="36.804770" lon="-114.100300">
        <ele>495.916</ele>
        <time>2018-12-28T04:25:42Z</time>
      </trkpt>
      <trkpt lat="36.804860" lon="-114.099880">
        <ele>496.008</ele>
        <time>2018-12-28T04:26:02Z</time>
      </trkpt>
      <trkpt lat="36.804930" lon="-114.099580">
        <ele>495.819</ele>
        <time>2018-12-28T04:26:22Z</time>
      </trkpt>
      <trkpt lat="36.805040" lon="-114.099150">
        <ele>495.787</ele>
        <time>2018-12-28T04:26:42Z</time>
      </trkpt>
      <trkpt lat="36.805110" lon="-114.098910">
        <ele>495.712</ele>
        <time>2018-12-28T04:27:02Z</time>
      </trkpt>
      <trkpt lat="36.805260" lon="-114.098390">
        <ele>495.743</ele>
        <time>2018-12-28T04:27:22Z</time>
      </trkpt>
      <trkpt lat="36.805370" lon="-114.098040">
        <ele>495.647</ele>
        <time>2018-12-28T04:27:42Z</time>
      </trkpt>
      <trkpt lat="36.805460" lon="-114.097800">
        <ele>495.751</ele>
        <time>2018-12-28T04:28:02Z</time>
      </trkpt>
      <trkpt lat="36.805570" lon="-114.097480">
        <ele>495.610</ele>
        <time>2018-12-28T04:28:22Z</time>
      </trkpt>
      <trkpt lat="36.805720" lon="-114.097090">
        <ele>495.775</ele>
        <time>2018-12-28T04:28:42Z</time>
      </trkpt>
      <trkpt lat="36.805840" lon="-114.096790">
        <ele>495.761</ele>
        <time>2018-12-28T04:29:02Z</time>
      </trkpt>
      <trkpt lat="36.805980" lon="-114.096450">
        <ele>495.121</ele>
        <time>2018-12-28T04:29:22Z</time>
      </trkpt>
      <trkpt lat="36.806330" lon="-114.095680">
        <ele>492.513</ele>
        <time>2018-12-28T04:29:42Z</time>
      </trkpt>
      <trkpt lat="36.807070" lon="-114.094120">
        <ele>492.408</ele>
        <time>2018-12-28T04:30:02Z</time>
      </trkpt>
      <trkpt lat="36.807320" lon="-114.093600">
        <ele>493.649</ele>
        <time>2018-12-28T04:30:22Z</time>
      </trkpt>
      <trkpt lat="36.807460" lon="-114.093290">
        <ele>494.387</ele>
        <time>2018-12-28T04:30:42Z</time>
      </trkpt>
      <trkpt lat="36.807600" lon="-114.093000">
        <ele>494.512</ele>
        <time>2018-12-28T04:31:02Z</time>
      </trkpt>
      <trkpt lat="36.807910" lon="-114.092350">
        <ele>494.593</ele>
        <time>2018-12-28T04:31:22Z</time>
      </trkpt>
      <trkpt lat="36.808050" lon="-114.092040">
        <ele>494.447</ele>
        <time>2018-12-28T04:31:42Z</time>
      </trkpt>
      <trkpt lat="36.808110" lon="-114.091910">
        <ele>494.351</ele>
        <time>2018-12-28T04:32:02Z</time>
      </trkpt>
      <trkpt lat="36.808270" lon="-114.091530">
        <ele>493.880</ele>
        <time>2018-12-28T04:32:22Z</time>
      </trkpt>
      <trkpt lat="36.808470" lon="-114.091040">
        <ele>494.095</ele>
        <time>2018-12-28T04:32:42Z</time>
      </trkpt>
      <trkpt lat="36.808610" lon="-114.090660">
        <ele>494.161</ele>
        <time>2018-12-28T04:33:02Z</time>
      </trkpt>
      <trkpt lat="36.808750" lon="-114.090250">
        <ele>493.721</ele>
        <time>2018-12-28T04:33:22Z</time>
      </trkpt>
      <trkpt lat="36.808900" lon="-114.089780">
        <ele>493.513</ele>
        <time>2018-12-28T04:33:42Z</time>
      </trkpt>
      <trkpt lat="36.809000" lon="-114.089430">
        <ele>493.308</ele>
        <time>2018-12-28T04:34:02Z</time>
      </trkpt>
      <trkpt lat="36.809080" lon="-114.089130">
        <ele>493.339</ele>
        <time>2018-12-28T04:34:22Z</time>
      </trkpt>
      <trkpt lat="36.809180" lon="-114.088770">
        <ele>493.397</ele>
        <time>2018-12-28T04:34:42Z</time>
      </trkpt>
      <trkpt lat="36.809270" lon="-114.088370">
        <ele>493.172</ele>
        <time>2018-12-28T04:35:02Z</time>
      </trkpt>
      <trkpt lat="36.809330" lon="-114.088110">
        <ele>493.083</ele>
        <time>2018-12-28T04:35:22Z</time>
      </trkpt>
      <trkpt lat="36.809360" lon="-114.087960">
        <ele>492.997</ele>
        <time>2018-12-28T04:35:42Z</time>
      </trkpt>
      <trkpt lat="36.809490" lon="-114.087300">
        <ele>493.041</ele>
        <time>2018-12-28T04:36:02Z</time>
      </trkpt>
      <trkpt lat="36.809520" lon="-114.087070">
        <ele>492.660</ele>
        <time>2018-12-28T04:36:22Z</time>
      </trkpt>
      <trkpt lat="36.809570" lon="-114.086770">
        <ele>491.795</ele>
        <time>2018-12-28T04:36:42Z</time>
      </trkpt>
      <trkpt lat="36.809580" lon="-114.086620">
        <ele>491.425</ele>
        <time>2018-12-28T04:37:02Z</time>
      </trkpt>
      <trkpt lat="36.809620" lon="-114.086300">
        <ele>491.026</ele>
        <time>2018-12-28T04:37:22Z</time>
      </trkpt>
      <trkpt lat="36.809670" lon="-114.085910">
        <ele>490.908</ele>
        <time>2018-12-28T04:37:42Z</time>
      </trkpt>
      <trkpt lat="36.809710" lon="-114.085590">
        <ele>491.408</ele>
        <time>2018-12-28T04:38:02Z</time>
      </trkpt>
      <trkpt lat="36.809730" lon="-114.085260">
        <ele>491.845</ele>
        <time>2018-12-28T04:38:22Z</time>
      </trkpt>
      <trkpt lat="36.809760" lon="-114.084860">
        <ele>492.343</ele>
        <time>2018-12-28T04:38:42Z</time>
      </trkpt>
      <trkpt lat="36.809780" lon="-114.084430">
        <ele>492.958</ele>
        <time>2018-12-28T04:39:02Z</time>
      </trkpt>
      <trkpt lat="36.809790" lon="-114.083770">
        <ele>494.459</ele>
        <time>2018-12-28T04:39:22Z</time>
      </trkpt>
      <trkpt lat="36.809790" lon="-114.083370">
        <ele>494.713</ele>
        <time>2018-12-28T04:39:42Z</time>
      </trkpt>
      <trkpt lat="36.809780" lon="-114.083050">
        <ele>494.817</ele>
        <time>2018-12-28T04:40:02Z</time>
      </trkpt>
      <trkpt lat="36.809770" lon="-114.082850">
        <ele>494.866</ele>
        <time>2018-12-28T04:40:22Z</time>
      </trkpt>
      <trkpt lat="36.809750" lon="-114.082430">
        <ele>495.221</ele>
        <time>2018-12-28T04:40:42Z</time>
      </trkpt>
      <trkpt lat="36.809700" lon="-114.081740">
        <ele>495.794</ele>
        <time>2018-12-28T04:41:02Z</time>
      </trkpt>
      <trkpt lat="36.809630" lon="-114.081110">
        <ele>495.857</ele>
        <time>2018-12-28T04:41:22Z</time>
      </trkpt>
      <trkpt lat="36.809440" lon="-114.079770">
        <ele>497.622</ele>
        <time>2018-12-28T04:41:42Z</time>
      </trkpt>
      <trkpt lat="36.809280" lon="-114.078660">
        <ele>498.408</ele>
        <time>2018-12-28T04:42:02Z</time>
      </trkpt>
      <trkpt lat="36.809010" lon="-114.076760">
        <ele>500.922</ele>
        <time>2018-12-28T04:42:22Z</time>
      </trkpt>
      <trkpt lat="36.808970" lon="-114.076450">
        <ele>500.570</ele>
        <time>2018-12-28T04:42:42Z</time>
      </trkpt>
      <trkpt lat="36.808940" lon="-114.076140">
        <ele>501.175</ele>
        <time>2018-12-28T04:43:02Z</time>
      </trkpt>
      <trkpt lat="36.808920" lon="-114.075970">
        <ele>501.646</ele>
        <time>2018-12-28T04:43:22Z</time>
      </trkpt>
      <trkpt lat="36.808900" lon="-114.075690">
        <ele>501.980</ele>
        <time>2018-12-28T04:43:42Z</time>
      </trkpt>
      <trkpt lat="36.808890" lon="-114.075400">
        <ele>501.974</ele>
        <time>2018-12-28T04:44:02Z</time>
      </trkpt>
      <trkpt lat="36.808880" lon="-114.075150">
        <ele>501.853</ele>
        <time>2018-12-28T04:44:22Z</time>
      </trkpt>
      <trkpt lat="36.808880" lon="-114.074730">
        <ele>502.018</ele>
        <time>2018-12-28T04:44:42Z</time>
      </trkpt>
      <trkpt lat="36.808880" lon="-114.074400">
        <ele>501.822</ele>
        <time>2018-12-28T04:45:02Z</time>
      </trkpt>
      <trkpt lat="36.808900" lon="-114.074040">
        <ele>501.762</ele>
        <time>2018-12-28T04:45:22Z</time>
      </trkpt>
      <trkpt lat="36.808920" lon="-114.073750">
        <ele>501.208</ele>
        <time>2018-12-28T04:45:42Z</time>
      </trkpt>
      <trkpt lat="36.808970" lon="-114.073290">
        <ele>501.108</ele>
        <time>2018-12-28T04:46:02Z</time>
      </trkpt>
      <trkpt lat="36.809000" lon="-114.073020">
        <ele>501.145</ele>
        <time>2018-12-28T04:46:22Z</time>
      </trkpt>
      <trkpt lat="36.809070" lon="-114.072620">
        <ele>501.153</ele>
        <time>2018-12-28T04:46:42Z</time>
      </trkpt>
      <trkpt lat="36.809130" lon="-114.072270">
        <ele>500.678</ele>
        <time>2018-12-28T04:47:02Z</time>
      </trkpt>
      <trkpt lat="36.809250" lon="-114.071750">
        <ele>498.789</ele>
        <time>2018-12-28T04:47:22Z</time>
      </trkpt>
      <trkpt lat="36.809290" lon="-114.071610">
        <ele>498.643</ele>
        <time>2018-12-28T04:47:42Z</time>
      </trkpt>
      <trkpt lat="36.809380" lon="-114.071280">
        <ele>498.317</ele>
        <time>2018-12-28T04:48:02Z</time>
      </trkpt>
      <trkpt lat="36.809430" lon="-114.071120">
        <ele>498.366</ele>
        <time>2018-12-28T04:48:22Z</time>
      </trkpt>
      <trkpt lat="36.809570" lon="-114.070680">
        <ele>498.391</ele>
        <time>2018-12-28T04:48:42Z</time>
      </trkpt>
      <trkpt lat="36.809600" lon="-114.070590">
        <ele>498.278</ele>
        <time>2018-12-28T04:49:02Z</time>
      </trkpt>
      <trkpt lat="36.809650" lon="-114.070460">
        <ele>498.133</ele>
        <time>2018-12-28T04:49:22Z</time>
      </trkpt>
      <trkpt lat="36.809790" lon="-114.070100">
        <ele>497.826</ele>
        <time>2018-12-28T04:49:42Z</time>
      </trkpt>
      <trkpt lat="36.809890" lon="-114.069850">
        <ele>497.208</ele>
        <time>2018-12-28T04:50:02Z</time>
      </trkpt>
      <trkpt lat="36.810050" lon="-114.069510">
        <ele>496.710</ele>
        <time>2018-12-28T04:50:22Z</time>
      </trkpt>
      <trkpt lat="36.810360" lon="-114.068840">
        <ele>496.938</ele>
        <time>2018-12-28T04:50:42Z</time>
      </trkpt>
      <trkpt lat="36.810570" lon="-114.068400">
        <ele>496.763</ele>
        <time>2018-12-28T04:51:02Z</time>
      </trkpt>
      <trkpt lat="36.810730" lon="-114.068070">
        <ele>496.064</ele>
        <time>2018-12-28T04:51:22Z</time>
      </trkpt>
      <trkpt lat="36.811090" lon="-114.067320">
        <ele>496.188</ele>
        <time>2018-12-28T04:51:42Z</time>
      </trkpt>
      <trkpt lat="36.811320" lon="-114.066820">
        <ele>496.482</ele>
        <time>2018-12-28T04:52:02Z</time>
      </trkpt>
      <trkpt lat="36.811460" lon="-114.066530">
        <ele>496.751</ele>
        <time>2018-12-28T04:52:22Z</time>
      </trkpt>
      <trkpt lat="36.811600" lon="-114.066240">
        <ele>496.536</ele>
        <time>2018-12-28T04:52:42Z</time>
      </trkpt>
      <trkpt lat="36.811700" lon="-114.066040">
        <ele>496.847</ele>
        <time>2018-12-28T04:53:02Z</time>
      </trkpt>
      <trkpt lat="36.811850" lon="-114.065720">
        <ele>497.129</ele>
        <time>2018-12-28T04:53:22Z</time>
      </trkpt>
      <trkpt lat="36.812000" lon="-114.065390">
        <ele>497.121</ele>
        <time>2018-12-28T04:53:42Z</time>
      </trkpt>
      <trkpt lat="36.812110" lon="-114.065160">
        <ele>497.208</ele>
        <time>2018-12-28T04:54:02Z</time>
      </trkpt>
      <trkpt lat="36.812220" lon="-114.064930">
        <ele>497.747</ele>
        <time>2018-12-28T04:54:22Z</time>
      </trkpt>
      <trkpt lat="36.812390" lon="-114.064580">
        <ele>499.765</ele>
        <time>2018-12-28T04:54:42Z</time>
      </trkpt>
      <trkpt lat="36.812530" lon="-114.064280">
        <ele>500.810</ele>
        <time>2018-12-28T04:55:02Z</time>
      </trkpt>
      <trkpt lat="36.812570" lon="-114.064210">
        <ele>501.351</ele>
        <time>2018-12-28T04:55:22Z</time>
      </trkpt>
      <trkpt lat="36.812600" lon="-114.064120">
        <ele>502.175</ele>
        <time>2018-12-28T04:55:42Z</time>
      </trkpt>
      <trkpt lat="36.812890" lon="-114.063510">
        <ele>505.779</ele>
        <time>2018-12-28T04:56:02Z</time>
      </trkpt>
      <trkpt lat="36.813580" lon="-114.062080">
        <ele>509.558</ele>
        <time>2018-12-28T04:56:22Z</time>
      </trkpt>
      <trkpt lat="36.814510" lon="-114.060110">
        <ele>513.953</ele>
        <time>2018-12-28T04:56:42Z</time>
      </trkpt>
      <trkpt lat="36.814620" lon="-114.059870">
        <ele>514.534</ele>
        <time>2018-12-28T04:57:02Z</time>
      </trkpt>
      <trkpt lat="36.814700" lon="-114.059710">
        <ele>515.455</ele>
        <time>2018-12-28T04:57:22Z</time>
      </trkpt>
      <trkpt lat="36.814900" lon="-114.059290">
        <ele>517.910</ele>
        <time>2018-12-28T04:57:42Z</time>
      </trkpt>
      <trkpt lat="36.815060" lon="-114.058940">
        <ele>518.808</ele>
        <time>2018-12-28T04:58:02Z</time>
      </trkpt>
      <trkpt lat="36.815130" lon="-114.058780">
        <ele>519.016</ele>
        <time>2018-12-28T04:58:22Z</time>
      </trkpt>
      <trkpt lat="36.815230" lon="-114.058540">
        <ele>519.214</ele>
        <time>2018-12-28T04:58:42Z</time>
      </trkpt>
      <trkpt lat="36.815400" lon="-114.058090">
        <ele>521.179</ele>
        <time>2018-12-28T04:59:02Z</time>
      </trkpt>
      <trkpt lat="36.815470" lon="-114.057910">
        <ele>521.580</ele>
        <time>2018-12-28T04:59:22Z</time>
      </trkpt>
      <trkpt lat="36.815600" lon="-114.057540">
        <ele>521.864</ele>
        <time>2018-12-28T04:59:42Z</time>
      </trkpt>
      <trkpt lat="36.815660" lon="-114.057370">
        <ele>522.288</ele>
        <time>2018-12-28T05:00:02Z</time>
      </trkpt>
      <trkpt lat="36.815690" lon="-114.057280">
        <ele>522.417</ele>
        <time>2018-12-28T05:00:22Z</time>
      </trkpt>
      <trkpt lat="36.815720" lon="-114.057180">
        <ele>522.582</ele>
        <time>2018-12-28T05:00:42Z</time>
      </trkpt>
      <trkpt lat="36.815750" lon="-114.057090">
        <ele>522.619</ele>
        <time>2018-12-28T05:01:02Z</time>
      </trkpt>
      <trkpt lat="36.815830" lon="-114.056810">
        <ele>523.509</ele>
        <time>2018-12-28T05:01:22Z</time>
      </trkpt>
      <trkpt lat="36.815910" lon="-114.056550">
        <ele>525.019</ele>
        <time>2018-12-28T05:01:42Z</time>
      </trkpt>
      <trkpt lat="36.815950" lon="-114.056420">
        <ele>526.008</ele>
        <time>2018-12-28T05:02:02Z</time>
      </trkpt>
      <trkpt lat="36.816120" lon="-114.055760">
        <ele>526.434</ele>
        <time>2018-12-28T05:02:22Z</time>
      </trkpt>
      <trkpt lat="36.816270" lon="-114.055190">
        <ele>530.342</ele>
        <time>2018-12-28T05:02:42Z</time>
      </trkpt>
      <trkpt lat="36.816350" lon="-114.054880">
        <ele>531.537</ele>
        <time>2018-12-28T05:03:02Z</time>
      </trkpt>
      <trkpt lat="36.816450" lon="-114.054450">
        <ele>533.998</ele>
        <time>2018-12-28T05:03:22Z</time>
      </trkpt>
      <trkpt lat="36.817570" lon="-114.050130">
        <ele>543.552</ele>
        <time>2018-12-28T05:03:42Z</time>
      </trkpt>
      <trkpt lat="36.818030" lon="-114.048390">
        <ele>540.276</ele>
        <time>2018-12-28T05:04:02Z</time>
      </trkpt>
      <trkpt lat="36.818640" lon="-114.046000">
        <ele>535.345</ele>
        <time>2018-12-28T05:04:22Z</time>
      </trkpt>
      <trkpt lat="36.819360" lon="-114.043210">
        <ele>526.380</ele>
        <time>2018-12-28T05:04:42Z</time>
      </trkpt>
      <trkpt lat="36.819830" lon="-114.041380">
        <ele>522.046</ele>
        <time>2018-12-28T05:05:02Z</time>
      </trkpt>
      <trkpt lat="36.820270" lon="-114.039680">
        <ele>521.188</ele>
        <time>2018-12-28T05:05:22Z</time>
      </trkpt>
      <trkpt lat="36.820500" lon="-114.038780">
        <ele>522.416</ele>
        <time>2018-12-28T05:05:42Z</time>
      </trkpt>
      <trkpt lat="36.821000" lon="-114.036860">
        <ele>524.508</ele>
        <time>2018-12-28T05:06:02Z</time>
      </trkpt>
      <trkpt lat="36.821140" lon="-114.036330">
        <ele>524.717</ele>
        <time>2018-12-28T05:06:22Z</time>
      </trkpt>
      <trkpt lat="36.821250" lon="-114.035940">
        <ele>524.885</ele>
        <time>2018-12-28T05:06:42Z</time>
      </trkpt>
      <trkpt lat="36.821400" lon="-114.035380">
        <ele>525.380</ele>
        <time>2018-12-28T05:07:02Z</time>
      </trkpt>
      <trkpt lat="36.821610" lon="-114.034670">
        <ele>525.531</ele>
        <time>2018-12-28T05:07:22Z</time>
      </trkpt>
      <trkpt lat="36.821910" lon="-114.033660">
        <ele>525.745</ele>
        <time>2018-12-28T05:07:42Z</time>
      </trkpt>
      <trkpt lat="36.822200" lon="-114.032740">
        <ele>525.879</ele>
        <time>2018-12-28T05:08:02Z</time>
      </trkpt>
      <trkpt lat="36.822930" lon="-114.030460">
        <ele>528.628</ele>
        <time>2018-12-28T05:08:22Z</time>
      </trkpt>
      <trkpt lat="36.823090" lon="-114.029950">
        <ele>530.043</ele>
        <time>2018-12-28T05:08:42Z</time>
      </trkpt>
      <trkpt lat="36.823380" lon="-114.029060">
        <ele>531.098</ele>
        <time>2018-12-28T05:09:02Z</time>
      </trkpt>
      <trkpt lat="36.823640" lon="-114.028250">
        <ele>533.115</ele>
        <time>2018-12-28T05:09:22Z</time>
      </trkpt>
      <trkpt lat="36.823820" lon="-114.027660">
        <ele>534.926</ele>
        <time>2018-12-28T05:09:42Z</time>
      </trkpt>
      <trkpt lat="36.824180" lon="-114.026560">
        <ele>535.608</ele>
        <time>2018-12-28T05:10:02Z</time>
      </trkpt>
      <trkpt lat="36.824800" lon="-114.024630">
        <ele>537.172</ele>
        <time>2018-12-28T05:10:22Z</time>
      </trkpt>
      <trkpt lat="36.825450" lon="-114.022610">
        <ele>536.920</ele>
        <time>2018-12-28T05:10:42Z</time>
      </trkpt>
      <trkpt lat="36.826190" lon="-114.020310">
        <ele>538.355</ele>
        <time>2018-12-28T05:11:02Z</time>
      </trkpt>
      <trkpt lat="36.826520" lon="-114.019270">
        <ele>538.966</ele>
        <time>2018-12-28T05:11:22Z</time>
      </trkpt>
      <trkpt lat="36.827080" lon="-114.017520">
        <ele>539.740</ele>
        <time>2018-12-28T05:11:42Z</time>
      </trkpt>
      <trkpt lat="36.827530" lon="-114.016130">
        <ele>540.724</ele>
        <time>2018-12-28T05:12:02Z</time>
      </trkpt>
      <trkpt lat="36.827880" lon="-114.015050">
        <ele>541.963</ele>
        <time>2018-12-28T05:12:22Z</time>
      </trkpt>
      <trkpt lat="36.828280" lon="-114.013810">
        <ele>546.428</ele>
        <time>2018-12-28T05:12:42Z</time>
      </trkpt>
      <trkpt lat="36.828550" lon="-114.012950">
        <ele>550.546</ele>
        <time>2018-12-28T05:13:02Z</time>
      </trkpt>
      <trkpt lat="36.828950" lon="-114.011700">
        <ele>554.588</ele>
        <time>2018-12-28T05:13:22Z</time>
      </trkpt>
      <trkpt lat="36.829230" lon="-114.010840">
        <ele>558.516</ele>
        <time>2018-12-28T05:13:42Z</time>
      </trkpt>
      <trkpt lat="36.829330" lon="-114.010570">
        <ele>558.208</ele>
        <time>2018-12-28T05:14:02Z</time>
      </trkpt>
      <trkpt lat="36.829560" lon="-114.009960">
        <ele>560.227</ele>
        <time>2018-12-28T05:14:22Z</time>
      </trkpt>
      <trkpt lat="36.829700" lon="-114.009610">
        <ele>562.895</ele>
        <time>2018-12-28T05:14:42Z</time>
      </trkpt>
      <trkpt lat="36.830060" lon="-114.008770">
        <ele>563.990</ele>
        <time>2018-12-28T05:15:02Z</time>
      </trkpt>
      <trkpt lat="36.830310" lon="-114.008240">
        <ele>565.231</ele>
        <time>2018-12-28T05:15:22Z</time>
      </trkpt>
      <trkpt lat="36.830570" lon="-114.007760">
        <ele>565.115</ele>
        <time>2018-12-28T05:15:42Z</time>
      </trkpt>
      <trkpt lat="36.830840" lon="-114.007270">
        <ele>564.569</ele>
        <time>2018-12-28T05:16:02Z</time>
      </trkpt>
      <trkpt lat="36.831020" lon="-114.006950">
        <ele>565.038</ele>
        <time>2018-12-28T05:16:22Z</time>
      </trkpt>
      <trkpt lat="36.831180" lon="-114.006700">
        <ele>565.323</ele>
        <time>2018-12-28T05:16:42Z</time>
      </trkpt>
      <trkpt lat="36.831450" lon="-114.006260">
        <ele>565.899</ele>
        <time>2018-12-28T05:17:02Z</time>
      </trkpt>
      <trkpt lat="36.831650" lon="-114.005970">
        <ele>564.507</ele>
        <time>2018-12-28T05:17:22Z</time>
      </trkpt>
      <trkpt lat="36.831840" lon="-114.005690">
        <ele>563.927</ele>
        <time>2018-12-28T05:17:42Z</time>
      </trkpt>
      <trkpt lat="36.831920" lon="-114.005590">
        <ele>563.108</ele>
        <time>2018-12-28T05:18:02Z</time>
      </trkpt>
      <trkpt lat="36.832070" lon="-114.005370">
        <ele>564.652</ele>
        <time>2018-12-28T05:18:22Z</time>
      </trkpt>
      <trkpt lat="36.832130" lon="-114.005280">
        <ele>564.730</ele>
        <time>2018-12-28T05:18:42Z</time>
      </trkpt>
      <trkpt lat="36.832370" lon="-114.004960">
        <ele>566.265</ele>
        <time>2018-12-28T05:19:02Z</time>
      </trkpt>
      <trkpt lat="36.832700" lon="-114.004540">
        <ele>567.456</ele>
        <time>2018-12-28T05:19:22Z</time>
      </trkpt>
      <trkpt lat="36.832930" lon="-114.004280">
        <ele>568.220</ele>
        <time>2018-12-28T05:19:42Z</time>
      </trkpt>
      <trkpt lat="36.833150" lon="-114.004010">
        <ele>568.174</ele>
        <time>2018-12-28T05:20:02Z</time>
      </trkpt>
      <trkpt lat="36.833240" lon="-114.003920">
        <ele>568.123</ele>
        <time>2018-12-28T05:20:22Z</time>
      </trkpt>
      <trkpt lat="36.833430" lon="-114.003710">
        <ele>567.468</ele>
        <time>2018-12-28T05:20:42Z</time>
      </trkpt>
      <trkpt lat="36.833700" lon="-114.003440">
        <ele>567.814</ele>
        <time>2018-12-28T05:21:02Z</time>
      </trkpt>
      <trkpt lat="36.833950" lon="-114.003190">
        <ele>568.854</ele>
        <time>2018-12-28T05:21:22Z</time>
      </trkpt>
      <trkpt lat="36.834090" lon="-114.003040">
        <ele>570.409</ele>
        <time>2018-12-28T05:21:42Z</time>
      </trkpt>
      <trkpt lat="36.834190" lon="-114.002950">
        <ele>570.808</ele>
        <time>2018-12-28T05:22:02Z</time>
      </trkpt>
      <trkpt lat="36.834280" lon="-114.002870">
        <ele>571.054</ele>
        <time>2018-12-28T05:22:22Z</time>
      </trkpt>
      <trkpt lat="36.834630" lon="-114.002550">
        <ele>572.832</ele>
        <time>2018-12-28T05:22:42Z</time>
      </trkpt>
      <trkpt lat="36.834890" lon="-114.002320">
        <ele>573.287</ele>
        <time>2018-12-28T05:23:02Z</time>
      </trkpt>
      <trkpt lat="36.835100" lon="-114.002150">
        <ele>573.588</ele>
        <time>2018-12-28T05:23:22Z</time>
      </trkpt>
      <trkpt lat="36.835510" lon="-114.001790">
        <ele>574.692</ele>
        <time>2018-12-28T05:23:42Z</time>
      </trkpt>
      <trkpt lat="36.835810" lon="-114.001530">
        <ele>575.396</ele>
        <time>2018-12-28T05:24:02Z</time>
      </trkpt>
      <trkpt lat="36.836140" lon="-114.001240">
        <ele>575.935</ele>
        <time>2018-12-28T05:24:22Z</time>
      </trkpt>
      <trkpt lat="36.836620" lon="-114.000830">
        <ele>578.070</ele>
        <time>2018-12-28T05:24:42Z</time>
      </trkpt>
      <trkpt lat="36.836800" lon="-114.000670">
        <ele>578.871</ele>
        <time>2018-12-28T05:25:02Z</time>
      </trkpt>
      <trkpt lat="36.836950" lon="-114.000550">
        <ele>578.041</ele>
        <time>2018-12-28T05:25:22Z</time>
      </trkpt>
      <trkpt lat="36.837160" lon="-114.000380">
        <ele>577.415</ele>
        <time>2018-12-28T05:25:42Z</time>
      </trkpt>
      <trkpt lat="36.837330" lon="-114.000230">
        <ele>577.608</ele>
        <time>2018-12-28T05:26:02Z</time>
      </trkpt>
      <trkpt lat="36.837690" lon="-113.999930">
        <ele>578.350</ele>
        <time>2018-12-28T05:26:22Z</time>
      </trkpt>
      <trkpt lat="36.838140" lon="-113.999550">
        <ele>577.858</ele>
        <time>2018-12-28T05:26:42Z</time>
      </trkpt>
      <trkpt lat="36.838490" lon="-113.999250">
        <ele>577.933</ele>
        <time>2018-12-28T05:27:02Z</time>
      </trkpt>
      <trkpt lat="36.838580" lon="-113.999170">
        <ele>578.194</ele>
        <time>2018-12-28T05:27:22Z</time>
      </trkpt>
      <trkpt lat="36.838680" lon="-113.999090">
        <ele>578.518</ele>
        <time>2018-12-28T05:27:42Z</time>
      </trkpt>
      <trkpt lat="36.838780" lon="-113.999000">
        <ele>579.012</ele>
        <time>2018-12-28T05:28:02Z</time>
      </trkpt>
      <trkpt lat="36.839050" lon="-113.998760">
        <ele>581.181</ele>
        <time>2018-12-28T05:28:22Z</time>
      </trkpt>
      <trkpt lat="36.839230" lon="-113.998600">
        <ele>582.896</ele>
        <time>2018-12-28T05:28:42Z</time>
      </trkpt>
      <trkpt lat="36.839420" lon="-113.998430">
        <ele>584.457</ele>
        <time>2018-12-28T05:29:02Z</time>
      </trkpt>
      <trkpt lat="36.839860" lon="-113.998040">
        <ele>586.800</ele>
        <time>2018-12-28T05:29:22Z</time>
      </trkpt>
      <trkpt lat="36.839950" lon="-113.997960">
        <ele>586.920</ele>
        <time>2018-12-28T05:29:42Z</time>
      </trkpt>
      <trkpt lat="36.840280" lon="-113.997670">
        <ele>586.808</ele>
        <time>2018-12-28T05:30:02Z</time>
      </trkpt>
      <trkpt lat="36.840560" lon="-113.997430">
        <ele>586.558</ele>
        <time>2018-12-28T05:30:22Z</time>
      </trkpt>
      <trkpt lat="36.840920" lon="-113.997120">
        <ele>586.166</ele>
        <time>2018-12-28T05:30:42Z</time>
      </trkpt>
      <trkpt lat="36.841380" lon="-113.996740">
        <ele>585.051</ele>
        <time>2018-12-28T05:31:02Z</time>
      </trkpt>
      <trkpt lat="36.842110" lon="-113.996130">
        <ele>577.522</ele>
        <time>2018-12-28T05:31:22Z</time>
      </trkpt>
      <trkpt lat="36.842480" lon="-113.995830">
        <ele>572.516</ele>
        <time>2018-12-28T05:31:42Z</time>
      </trkpt>
      <trkpt lat="36.843360" lon="-113.995100">
        <ele>567.410</ele>
        <time>2018-12-28T05:32:02Z</time>
      </trkpt>
      <trkpt lat="36.843470" lon="-113.994980">
        <ele>573.289</ele>
        <time>2018-12-28T05:32:22Z</time>
      </trkpt>
      <trkpt lat="36.843750" lon="-113.994720">
        <ele>579.254</ele>
        <time>2018-12-28T05:32:42Z</time>
      </trkpt>
      <trkpt lat="36.844180" lon="-113.994350">
        <ele>581.298</ele>
        <time>2018-12-28T05:33:02Z</time>
      </trkpt>
      <trkpt lat="36.844630" lon="-113.993960">
        <ele>582.215</ele>
        <time>2018-12-28T05:33:22Z</time>
      </trkpt>
      <trkpt lat="36.844740" lon="-113.993860">
        <ele>583.626</ele>
        <time>2018-12-28T05:33:42Z</time>
      </trkpt>
      <trkpt lat="36.845000" lon="-113.993640">
        <ele>584.808</ele>
        <time>2018-12-28T05:34:02Z</time>
      </trkpt>
      <trkpt lat="36.845270" lon="-113.993410">
        <ele>585.022</ele>
        <time>2018-12-28T05:34:22Z</time>
      </trkpt>
      <trkpt lat="36.845490" lon="-113.993230">
        <ele>586.410</ele>
        <time>2018-12-28T05:34:42Z</time>
      </trkpt>
      <trkpt lat="36.845740" lon="-113.993010">
        <ele>588.075</ele>
        <time>2018-12-28T05:35:02Z</time>
      </trkpt>
      <trkpt lat="36.846110" lon="-113.992680">
        <ele>592.526</ele>
        <time>2018-12-28T05:35:22Z</time>
      </trkpt>
      <trkpt lat="36.846550" lon="-113.992310">
        <ele>591.820</ele>
        <time>2018-12-28T05:35:42Z</time>
      </trkpt>
      <trkpt lat="36.846820" lon="-113.992090">
        <ele>592.484</ele>
        <time>2018-12-28T05:36:02Z</time>
      </trkpt>
      <trkpt lat="36.847180" lon="-113.991770">
        <ele>595.673</ele>
        <time>2018-12-28T05:36:22Z</time>
      </trkpt>
      <trkpt lat="36.847720" lon="-113.991300">
        <ele>597.678</ele>
        <time>2018-12-28T05:36:42Z</time>
      </trkpt>
      <trkpt lat="36.847990" lon="-113.991070">
        <ele>600.175</ele>
        <time>2018-12-28T05:37:02Z</time>
      </trkpt>
      <trkpt lat="36.848340" lon="-113.990750">
        <ele>605.428</ele>
        <time>2018-12-28T05:37:22Z</time>
      </trkpt>
      <trkpt lat="36.848690" lon="-113.990450">
        <ele>608.120</ele>
        <time>2018-12-28T05:37:42Z</time>
      </trkpt>
      <trkpt lat="36.849080" lon="-113.990120">
        <ele>609.008</ele>
        <time>2018-12-28T05:38:02Z</time>
      </trkpt>
      <trkpt lat="36.849530" lon="-113.989740">
        <ele>609.490</ele>
        <time>2018-12-28T05:38:22Z</time>
      </trkpt>
      <trkpt lat="36.849960" lon="-113.989370">
        <ele>608.598</ele>
        <time>2018-12-28T05:38:42Z</time>
      </trkpt>
      <trkpt lat="36.850240" lon="-113.989130">
        <ele>607.983</ele>
        <time>2018-12-28T05:39:02Z</time>
      </trkpt>
      <trkpt lat="36.850500" lon="-113.988910">
        <ele>607.334</ele>
        <time>2018-12-28T05:39:22Z</time>
      </trkpt>
      <trkpt lat="36.850690" lon="-113.988750">
        <ele>606.918</ele>
        <time>2018-12-28T05:39:42Z</time>
      </trkpt>
      <trkpt lat="36.850960" lon="-113.988520">
        <ele>606.282</ele>
        <time>2018-12-28T05:40:02Z</time>
      </trkpt>
      <trkpt lat="36.851160" lon="-113.988350">
        <ele>606.081</ele>
        <time>2018-12-28T05:40:22Z</time>
      </trkpt>
      <trkpt lat="36.851290" lon="-113.988230">
        <ele>605.896</ele>
        <time>2018-12-28T05:40:42Z</time>
      </trkpt>
      <trkpt lat="36.851510" lon="-113.988050">
        <ele>605.361</ele>
        <time>2018-12-28T05:41:02Z</time>
      </trkpt>
      <trkpt lat="36.851700" lon="-113.987890">
        <ele>604.821</ele>
        <time>2018-12-28T05:41:22Z</time>
      </trkpt>
      <trkpt lat="36.852250" lon="-113.987420">
        <ele>601.913</ele>
        <time>2018-12-28T05:41:42Z</time>
      </trkpt>
      <trkpt lat="36.852590" lon="-113.987130">
        <ele>599.608</ele>
        <time>2018-12-28T05:42:02Z</time>
      </trkpt>
      <trkpt lat="36.853010" lon="-113.986770">
        <ele>602.029</ele>
        <time>2018-12-28T05:42:22Z</time>
      </trkpt>
      <trkpt lat="36.853430" lon="-113.986400">
        <ele>601.897</ele>
        <time>2018-12-28T05:42:42Z</time>
      </trkpt>
      <trkpt lat="36.853780" lon="-113.986100">
        <ele>599.382</ele>
        <time>2018-12-28T05:43:02Z</time>
      </trkpt>
      <trkpt lat="36.854230" lon="-113.985700">
        <ele>595.443</ele>
        <time>2018-12-28T05:43:22Z</time>
      </trkpt>
      <trkpt lat="36.854410" lon="-113.985540">
        <ele>593.577</ele>
        <time>2018-12-28T05:43:42Z</time>
      </trkpt>
      <trkpt lat="36.854950" lon="-113.985030">
        <ele>591.671</ele>
        <time>2018-12-28T05:44:02Z</time>
      </trkpt>
      <trkpt lat="36.855280" lon="-113.984690">
        <ele>592.180</ele>
        <time>2018-12-28T05:44:22Z</time>
      </trkpt>
      <trkpt lat="36.855520" lon="-113.984450">
        <ele>591.565</ele>
        <time>2018-12-28T05:44:42Z</time>
      </trkpt>
      <trkpt lat="36.855700" lon="-113.984270">
        <ele>591.815</ele>
        <time>2018-12-28T05:45:02Z</time>
      </trkpt>
      <trkpt lat="36.855850" lon="-113.984100">
        <ele>591.465</ele>
        <time>2018-12-28T05:45:22Z</time>
      </trkpt>
      <trkpt lat="36.855980" lon="-113.983970">
        <ele>591.411</ele>
        <time>2018-12-28T05:45:42Z</time>
      </trkpt>
      <trkpt lat="36.856200" lon="-113.983740">
        <ele>589.108</ele>
        <time>2018-12-28T05:46:02Z</time>
      </trkpt>
      <trkpt lat="36.856360" lon="-113.983570">
        <ele>588.324</ele>
        <time>2018-12-28T05:46:22Z</time>
      </trkpt>
      <trkpt lat="36.856550" lon="-113.983360">
        <ele>587.592</ele>
        <time>2018-12-28T05:46:42Z</time>
      </trkpt>
      <trkpt lat="36.856750" lon="-113.983130">
        <ele>587.237</ele>
        <time>2018-12-28T05:47:02Z</time>
      </trkpt>
      <trkpt lat="36.856850" lon="-113.983010">
        <ele>587.298</ele>
        <time>2018-12-28T05:47:22Z</time>
      </trkpt>
      <trkpt lat="36.857100" lon="-113.982720">
        <ele>587.872</ele>
        <time>2018-12-28T05:47:42Z</time>
      </trkpt>
      <trkpt lat="36.857490" lon="-113.982260">
        <ele>589.436</ele>
        <time>2018-12-28T05:48:02Z</time>
      </trkpt>
      <trkpt lat="36.857730" lon="-113.981960">
        <ele>589.895</ele>
        <time>2018-12-28T05:48:22Z</time>
      </trkpt>
      <trkpt lat="36.857970" lon="-113.981660">
        <ele>590.230</ele>
        <time>2018-12-28T05:48:42Z</time>
      </trkpt>
      <trkpt lat="36.858180" lon="-113.981390">
        <ele>590.465</ele>
        <time>2018-12-28T05:49:02Z</time>
      </trkpt>
      <trkpt lat="36.858280" lon="-113.981260">
        <ele>590.468</ele>
        <time>2018-12-28T05:49:22Z</time>
      </trkpt>
      <trkpt lat="36.858400" lon="-113.981100">
        <ele>590.514</ele>
        <time>2018-12-28T05:49:42Z</time>
      </trkpt>
      <trkpt lat="36.858500" lon="-113.980970">
        <ele>590.508</ele>
        <time>2018-12-28T05:50:02Z</time>
      </trkpt>
      <trkpt lat="36.858710" lon="-113.980700">
        <ele>590.689</ele>
        <time>2018-12-28T05:50:22Z</time>
      </trkpt>
      <trkpt lat="36.859030" lon="-113.980250">
        <ele>590.717</ele>
        <time>2018-12-28T05:50:42Z</time>
      </trkpt>
      <trkpt lat="36.859330" lon="-113.979820">
        <ele>590.752</ele>
        <time>2018-12-28T05:51:02Z</time>
      </trkpt>
      <trkpt lat="36.859530" lon="-113.979540">
        <ele>590.473</ele>
        <time>2018-12-28T05:51:22Z</time>
      </trkpt>
      <trkpt lat="36.859730" lon="-113.979240">
        <ele>589.647</ele>
        <time>2018-12-28T05:51:42Z</time>
      </trkpt>
      <trkpt lat="36.859950" lon="-113.978910">
        <ele>589.941</ele>
        <time>2018-12-28T05:52:02Z</time>
      </trkpt>
      <trkpt lat="36.860150" lon="-113.978600">
        <ele>592.070</ele>
        <time>2018-12-28T05:52:22Z</time>
      </trkpt>
      <trkpt lat="36.860730" lon="-113.977690">
        <ele>592.155</ele>
        <time>2018-12-28T05:52:42Z</time>
      </trkpt>
      <trkpt lat="36.860770" lon="-113.977630">
        <ele>592.129</ele>
        <time>2018-12-28T05:53:02Z</time>
      </trkpt>
      <trkpt lat="36.865690" lon="-113.969880">
        <ele>592.100</ele>
        <time>2018-12-28T05:53:22Z</time>
      </trkpt>
      <trkpt lat="36.867370" lon="-113.967220">
        <ele>593.420</ele>
        <time>2018-12-28T05:53:42Z</time>
      </trkpt>
      <trkpt lat="36.868530" lon="-113.965410">
        <ele>593.808</ele>
        <time>2018-12-28T05:54:02Z</time>
      </trkpt>
      <trkpt lat="36.869750" lon="-113.963480">
        <ele>593.815</ele>
        <time>2018-12-28T05:54:22Z</time>
      </trkpt>
      <trkpt lat="36.870170" lon="-113.962820">
        <ele>596.343</ele>
        <time>2018-12-28T05:54:42Z</time>
      </trkpt>
      <trkpt lat="36.870240" lon="-113.962710">
        <ele>597.048</ele>
        <time>2018-12-28T05:55:02Z</time>
      </trkpt>
      <trkpt lat="36.870670" lon="-113.962030">
        <ele>598.789</ele>
        <time>2018-12-28T05:55:22Z</time>
      </trkpt>
      <trkpt lat="36.870990" lon="-113.961520">
        <ele>600.023</ele>
        <time>2018-12-28T05:55:42Z</time>
      </trkpt>
      <trkpt lat="36.871380" lon="-113.960910">
        <ele>601.847</ele>
        <time>2018-12-28T05:56:02Z</time>
      </trkpt>
      <trkpt lat="36.871810" lon="-113.960240">
        <ele>601.826</ele>
        <time>2018-12-28T05:56:22Z</time>
      </trkpt>
      <trkpt lat="36.872350" lon="-113.959390">
        <ele>600.911</ele>
        <time>2018-12-28T05:56:42Z</time>
      </trkpt>
      <trkpt lat="36.872540" lon="-113.959080">
        <ele>600.986</ele>
        <time>2018-12-28T05:57:02Z</time>
      </trkpt>
      <trkpt lat="36.873000" lon="-113.958360">
        <ele>601.060</ele>
        <time>2018-12-28T05:57:22Z</time>
      </trkpt>
      <trkpt lat="36.873360" lon="-113.957790">
        <ele>600.926</ele>
        <time>2018-12-28T05:57:42Z</time>
      </trkpt>
      <trkpt lat="36.873850" lon="-113.957010">
        <ele>600.908</ele>
        <time>2018-12-28T05:58:02Z</time>
      </trkpt>
      <trkpt lat="36.874570" lon="-113.955870">
        <ele>600.851</ele>
        <time>2018-12-28T05:58:22Z</time>
      </trkpt>
      <trkpt lat="36.875000" lon="-113.955200">
        <ele>600.789</ele>
        <time>2018-12-28T05:58:42Z</time>
      </trkpt>
      <trkpt lat="36.875480" lon="-113.954440">
        <ele>600.794</ele>
        <time>2018-12-28T05:59:02Z</time>
      </trkpt>
      <trkpt lat="36.875760" lon="-113.954010">
        <ele>600.745</ele>
        <time>2018-12-28T05:59:22Z</time>
      </trkpt>
      <trkpt lat="36.876020" lon="-113.953600">
        <ele>600.559</ele>
        <time>2018-12-28T05:59:42Z</time>
      </trkpt>
      <trkpt lat="36.876090" lon="-113.953500">
        <ele>600.563</ele>
        <time>2018-12-28T06:00:02Z</time>
      </trkpt>
      <trkpt lat="36.876160" lon="-113.953370">
        <ele>600.572</ele>
        <time>2018-12-28T06:00:22Z</time>
      </trkpt>
      <trkpt lat="36.876360" lon="-113.953030">
        <ele>600.477</ele>
        <time>2018-12-28T06:00:42Z</time>
      </trkpt>
      <trkpt lat="36.876700" lon="-113.952500">
        <ele>600.345</ele>
        <time>2018-12-28T06:01:02Z</time>
      </trkpt>
      <trkpt lat="36.877180" lon="-113.951740">
        <ele>599.947</ele>
        <time>2018-12-28T06:01:22Z</time>
      </trkpt>
      <trkpt lat="36.877390" lon="-113.951410">
        <ele>599.411</ele>
        <time>2018-12-28T06:01:42Z</time>
      </trkpt>
      <trkpt lat="36.877730" lon="-113.950870">
        <ele>598.508</ele>
        <time>2018-12-28T06:02:02Z</time>
      </trkpt>
      <trkpt lat="36.878200" lon="-113.950130">
        <ele>598.587</ele>
        <time>2018-12-28T06:02:22Z</time>
      </trkpt>
      <trkpt lat="36.879160" lon="-113.948630">
        <ele>601.225</ele>
        <time>2018-12-28T06:02:42Z</time>
      </trkpt>
      <trkpt lat="36.880120" lon="-113.947130">
        <ele>601.970</ele>
        <time>2018-12-28T06:03:02Z</time>
      </trkpt>
      <trkpt lat="36.880740" lon="-113.946160">
        <ele>601.741</ele>
        <time>2018-12-28T06:03:22Z</time>
      </trkpt>
      <trkpt lat="36.881150" lon="-113.945500">
        <ele>601.735</ele>
        <time>2018-12-28T06:03:42Z</time>
      </trkpt>
      <trkpt lat="36.881420" lon="-113.945070">
        <ele>601.889</ele>
        <time>2018-12-28T06:04:02Z</time>
      </trkpt>
      <trkpt lat="36.881900" lon="-113.944320">
        <ele>601.568</ele>
        <time>2018-12-28T06:04:22Z</time>
      </trkpt>
      <trkpt lat="36.882640" lon="-113.943160">
        <ele>600.663</ele>
        <time>2018-12-28T06:04:42Z</time>
      </trkpt>
      <trkpt lat="36.882920" lon="-113.942720">
        <ele>600.499</ele>
        <time>2018-12-28T06:05:02Z</time>
      </trkpt>
      <trkpt lat="36.883120" lon="-113.942410">
        <ele>600.007</ele>
        <time>2018-12-28T06:05:22Z</time>
      </trkpt>
      <trkpt lat="36.883400" lon="-113.941980">
        <ele>599.527</ele>
        <time>2018-12-28T06:05:42Z</time>
      </trkpt>
      <trkpt lat="36.883540" lon="-113.941760">
        <ele>599.208</ele>
        <time>2018-12-28T06:06:02Z</time>
      </trkpt>
      <trkpt lat="36.883730" lon="-113.941450">
        <ele>598.762</ele>
        <time>2018-12-28T06:06:22Z</time>
      </trkpt>
      <trkpt lat="36.883950" lon="-113.941120">
        <ele>599.090</ele>
        <time>2018-12-28T06:06:42Z</time>
      </trkpt>
      <trkpt lat="36.884080" lon="-113.940900">
        <ele>599.495</ele>
        <time>2018-12-28T06:07:02Z</time>
      </trkpt>
      <trkpt lat="36.884560" lon="-113.940150">
        <ele>599.896</ele>
        <time>2018-12-28T06:07:22Z</time>
      </trkpt>
      <trkpt lat="36.884900" lon="-113.939610">
        <ele>599.780</ele>
        <time>2018-12-28T06:07:42Z</time>
      </trkpt>
      <trkpt lat="36.886100" lon="-113.937720">
        <ele>598.634</ele>
        <time>2018-12-28T06:08:02Z</time>
      </trkpt>
      <trkpt lat="36.886320" lon="-113.937380">
        <ele>598.343</ele>
        <time>2018-12-28T06:08:22Z</time>
      </trkpt>
      <trkpt lat="36.886610" lon="-113.936920">
        <ele>598.258</ele>
        <time>2018-12-28T06:08:42Z</time>
      </trkpt>
      <trkpt lat="36.887030" lon="-113.936250">
        <ele>598.121</ele>
        <time>2018-12-28T06:09:02Z</time>
      </trkpt>
      <trkpt lat="36.887100" lon="-113.936140">
        <ele>597.241</ele>
        <time>2018-12-28T06:09:22Z</time>
      </trkpt>
      <trkpt lat="36.887300" lon="-113.935830">
        <ele>593.005</ele>
        <time>2018-12-28T06:09:42Z</time>
      </trkpt>
      <trkpt lat="36.887440" lon="-113.935620">
        <ele>593.008</ele>
        <time>2018-12-28T06:10:02Z</time>
      </trkpt>
      <trkpt lat="36.888040" lon="-113.934650">
        <ele>593.325</ele>
        <time>2018-12-28T06:10:22Z</time>
      </trkpt>
      <trkpt lat="36.888350" lon="-113.934170">
        <ele>592.583</ele>
        <time>2018-12-28T06:10:42Z</time>
      </trkpt>
      <trkpt lat="36.888440" lon="-113.934030">
        <ele>592.478</ele>
        <time>2018-12-28T06:11:02Z</time>
      </trkpt>
      <trkpt lat="36.889930" lon="-113.931670">
        <ele>585.049</ele>
        <time>2018-12-28T06:11:22Z</time>
      </trkpt>
      <trkpt lat="36.890070" lon="-113.931460">
        <ele>583.533</ele>
        <time>2018-12-28T06:11:42Z</time>
      </trkpt>
      <trkpt lat="36.890210" lon="-113.931240">
        <ele>582.367</ele>
        <time>2018-12-28T06:12:02Z</time>
      </trkpt>
      <trkpt lat="36.890350" lon="-113.931020">
        <ele>581.476</ele>
        <time>2018-12-28T06:12:22Z</time>
      </trkpt>
      <trkpt lat="36.890980" lon="-113.930030">
        <ele>580.531</ele>
        <time>2018-12-28T06:12:42Z</time>
      </trkpt>
      <trkpt lat="36.891120" lon="-113.929810">
        <ele>579.114</ele>
        <time>2018-12-28T06:13:02Z</time>
      </trkpt>
      <trkpt lat="36.891190" lon="-113.929680">
        <ele>577.554</ele>
        <time>2018-12-28T06:13:22Z</time>
      </trkpt>
      <trkpt lat="36.891360" lon="-113.929430">
        <ele>575.609</ele>
        <time>2018-12-28T06:13:42Z</time>
      </trkpt>
      <trkpt lat="36.891520" lon="-113.929170">
        <ele>575.808</ele>
        <time>2018-12-28T06:14:02Z</time>
      </trkpt>
      <trkpt lat="36.891650" lon="-113.928960">
        <ele>575.434</ele>
        <time>2018-12-28T06:14:22Z</time>
      </trkpt>
      <trkpt lat="36.891730" lon="-113.928840">
        <ele>575.352</ele>
        <time>2018-12-28T06:14:42Z</time>
      </trkpt>
      <trkpt lat="36.891860" lon="-113.928610">
        <ele>575.117</ele>
        <time>2018-12-28T06:15:02Z</time>
      </trkpt>
      <trkpt lat="36.891920" lon="-113.928490">
        <ele>574.958</ele>
        <time>2018-12-28T06:15:22Z</time>
      </trkpt>
      <trkpt lat="36.892040" lon="-113.928260">
        <ele>574.852</ele>
        <time>2018-12-28T06:15:42Z</time>
      </trkpt>
      <trkpt lat="36.892160" lon="-113.928020">
        <ele>574.556</ele>
        <time>2018-12-28T06:16:02Z</time>
      </trkpt>
      <trkpt lat="36.892280" lon="-113.927780">
        <ele>574.085</ele>
        <time>2018-12-28T06:16:22Z</time>
      </trkpt>
      <trkpt lat="36.892380" lon="-113.927540">
        <ele>573.890</ele>
        <time>2018-12-28T06:16:42Z</time>
      </trkpt>
      <trkpt lat="36.892490" lon="-113.927290">
        <ele>573.731</ele>
        <time>2018-12-28T06:17:02Z</time>
      </trkpt>
      <trkpt lat="36.892580" lon="-113.927040">
        <ele>573.461</ele>
        <time>2018-12-28T06:17:22Z</time>
      </trkpt>
      <trkpt lat="36.892640" lon="-113.926880">
        <ele>572.807</ele>
        <time>2018-12-28T06:17:42Z</time>
      </trkpt>
      <trkpt lat="36.892720" lon="-113.926640">
        <ele>572.208</ele>
        <time>2018-12-28T06:18:02Z</time>
      </trkpt>
      <trkpt lat="36.892800" lon="-113.926390">
        <ele>571.576</ele>
        <time>2018-12-28T06:18:22Z</time>
      </trkpt>
      <trkpt lat="36.892840" lon="-113.926240">
        <ele>571.094</ele>
        <time>2018-12-28T06:18:42Z</time>
      </trkpt>
      <trkpt lat="36.892880" lon="-113.926110">
        <ele>570.999</ele>
        <time>2018-12-28T06:19:02Z</time>
      </trkpt>
      <trkpt lat="36.892940" lon="-113.925870">
        <ele>570.690</ele>
        <time>2018-12-28T06:19:22Z</time>
      </trkpt>
      <trkpt lat="36.893000" lon="-113.925600">
        <ele>570.324</ele>
        <time>2018-12-28T06:19:42Z</time>
      </trkpt>
      <trkpt lat="36.893060" lon="-113.925330">
        <ele>569.858</ele>
        <time>2018-12-28T06:20:02Z</time>
      </trkpt>
      <trkpt lat="36.893110" lon="-113.925060">
        <ele>569.247</ele>
        <time>2018-12-28T06:20:22Z</time>
      </trkpt>
      <trkpt lat="36.893150" lon="-113.924790">
        <ele>568.932</ele>
        <time>2018-12-28T06:20:42Z</time>
      </trkpt>
      <trkpt lat="36.893190" lon="-113.924510">
        <ele>568.936</ele>
        <time>2018-12-28T06:21:02Z</time>
      </trkpt>
      <trkpt lat="36.893230" lon="-113.924230">
        <ele>569.017</ele>
        <time>2018-12-28T06:21:22Z</time>
      </trkpt>
      <trkpt lat="36.893250" lon="-113.924010">
        <ele>569.118</ele>
        <time>2018-12-28T06:21:42Z</time>
      </trkpt>
      <trkpt lat="36.893270" lon="-113.923830">
        <ele>569.308</ele>
        <time>2018-12-28T06:22:02Z</time>
      </trkpt>
      <trkpt lat="36.893300" lon="-113.923550">
        <ele>569.716</ele>
        <time>2018-12-28T06:22:22Z</time>
      </trkpt>
      <trkpt lat="36.893330" lon="-113.923280">
        <ele>570.134</ele>
        <time>2018-12-28T06:22:42Z</time>
      </trkpt>
      <trkpt lat="36.893360" lon="-113.923000">
        <ele>570.539</ele>
        <time>2018-12-28T06:23:02Z</time>
      </trkpt>
      <trkpt lat="36.893390" lon="-113.922730">
        <ele>571.470</ele>
        <time>2018-12-28T06:23:22Z</time>
      </trkpt>
      <trkpt lat="36.893410" lon="-113.922510">
        <ele>572.294</ele>
        <time>2018-12-28T06:23:42Z</time>
      </trkpt>
      <trkpt lat="36.893620" lon="-113.920610">
        <ele>563.228</ele>
        <time>2018-12-28T06:24:02Z</time>
      </trkpt>
      <trkpt lat="36.893680" lon="-113.920150">
        <ele>547.737</ele>
        <time>2018-12-28T06:24:22Z</time>
      </trkpt>
      <trkpt lat="36.893780" lon="-113.919200">
        <ele>542.952</ele>
        <time>2018-12-28T06:24:42Z</time>
      </trkpt>
      <trkpt lat="36.893970" lon="-113.917310">
        <ele>570.391</ele>
        <time>2018-12-28T06:25:02Z</time>
      </trkpt>
      <trkpt lat="36.894010" lon="-113.916880">
        <ele>572.081</ele>
        <time>2018-12-28T06:25:22Z</time>
      </trkpt>
      <trkpt lat="36.894050" lon="-113.916530">
        <ele>573.219</ele>
        <time>2018-12-28T06:25:42Z</time>
      </trkpt>
      <trkpt lat="36.894080" lon="-113.916240">
        <ele>574.008</ele>
        <time>2018-12-28T06:26:02Z</time>
      </trkpt>
      <trkpt lat="36.894100" lon="-113.916070">
        <ele>574.342</ele>
        <time>2018-12-28T06:26:22Z</time>
      </trkpt>
      <trkpt lat="36.894120" lon="-113.915940">
        <ele>574.660</ele>
        <time>2018-12-28T06:26:42Z</time>
      </trkpt>
      <trkpt lat="36.894150" lon="-113.915690">
        <ele>575.185</ele>
        <time>2018-12-28T06:27:02Z</time>
      </trkpt>
      <trkpt lat="36.894170" lon="-113.915540">
        <ele>575.586</ele>
        <time>2018-12-28T06:27:22Z</time>
      </trkpt>
      <trkpt lat="36.894210" lon="-113.915310">
        <ele>575.960</ele>
        <time>2018-12-28T06:27:42Z</time>
      </trkpt>
      <trkpt lat="36.894260" lon="-113.915040">
        <ele>576.434</ele>
        <time>2018-12-28T06:28:02Z</time>
      </trkpt>
      <trkpt lat="36.894280" lon="-113.914900">
        <ele>576.733</ele>
        <time>2018-12-28T06:28:22Z</time>
      </trkpt>
      <trkpt lat="36.894310" lon="-113.914770">
        <ele>577.048</ele>
        <time>2018-12-28T06:28:42Z</time>
      </trkpt>
      <trkpt lat="36.894360" lon="-113.914510">
        <ele>577.559</ele>
        <time>2018-12-28T06:29:02Z</time>
      </trkpt>
      <trkpt lat="36.894390" lon="-113.914350">
        <ele>577.803</ele>
        <time>2018-12-28T06:29:22Z</time>
      </trkpt>
      <trkpt lat="36.894450" lon="-113.914100">
        <ele>578.423</ele>
        <time>2018-12-28T06:29:42Z</time>
      </trkpt>
      <trkpt lat="36.894510" lon="-113.913860">
        <ele>578.808</ele>
        <time>2018-12-28T06:30:02Z</time>
      </trkpt>
      <trkpt lat="36.894540" lon="-113.913710">
        <ele>579.198</ele>
        <time>2018-12-28T06:30:22Z</time>
      </trkpt>
      <trkpt lat="36.894570" lon="-113.913600">
        <ele>579.416</ele>
        <time>2018-12-28T06:30:42Z</time>
      </trkpt>
      <trkpt lat="36.894620" lon="-113.913440">
        <ele>579.781</ele>
        <time>2018-12-28T06:31:02Z</time>
      </trkpt>
      <trkpt lat="36.894650" lon="-113.913310">
        <ele>579.832</ele>
        <time>2018-12-28T06:31:22Z</time>
      </trkpt>
      <trkpt lat="36.894720" lon="-113.913080">
        <ele>579.986</ele>
        <time>2018-12-28T06:31:42Z</time>
      </trkpt>
      <trkpt lat="36.894760" lon="-113.912940">
        <ele>579.940</ele>
        <time>2018-12-28T06:32:02Z</time>
      </trkpt>
      <trkpt lat="36.894790" lon="-113.912820">
        <ele>579.969</ele>
        <time>2018-12-28T06:32:22Z</time>
      </trkpt>
      <trkpt lat="36.894920" lon="-113.912430">
        <ele>579.994</ele>
        <time>2018-12-28T06:32:42Z</time>
      </trkpt>
      <trkpt lat="36.895050" lon="-113.912050">
        <ele>580.093</ele>
        <time>2018-12-28T06:33:02Z</time>
      </trkpt>
      <trkpt lat="36.895100" lon="-113.911900">
        <ele>579.965</ele>
        <time>2018-12-28T06:33:22Z</time>
      </trkpt>
      <trkpt lat="36.895140" lon="-113.911800">
        <ele>579.921</ele>
        <time>2018-12-28T06:33:42Z</time>
      </trkpt>
      <trkpt lat="36.895230" lon="-113.911570">
        <ele>580.008</ele>
        <time>2018-12-28T06:34:02Z</time>
      </trkpt>
      <trkpt lat="36.895330" lon="-113.911320">
        <ele>580.362</ele>
        <time>2018-12-28T06:34:22Z</time>
      </trkpt>
      <trkpt lat="36.895390" lon="-113.911170">
        <ele>580.540</ele>
        <time>2018-12-28T06:34:42Z</time>
      </trkpt>
      <trkpt lat="36.895480" lon="-113.910960">
        <ele>581.065</ele>
        <time>2018-12-28T06:35:02Z</time>
      </trkpt>
      <trkpt lat="36.895540" lon="-113.910830">
        <ele>581.386</ele>
        <time>2018-12-28T06:35:22Z</time>
      </trkpt>
      <trkpt lat="36.895640" lon="-113.910610">
        <ele>581.710</ele>
        <time>2018-12-28T06:35:42Z</time>
      </trkpt>
      <trkpt lat="36.895710" lon="-113.910460">
        <ele>581.964</ele>
        <time>2018-12-28T06:36:02Z</time>
      </trkpt>
      <trkpt lat="36.895810" lon="-113.910250">
        <ele>582.213</ele>
        <time>2018-12-28T06:36:22Z</time>
      </trkpt>
      <trkpt lat="36.895880" lon="-113.910110">
        <ele>582.318</ele>
        <time>2018-12-28T06:36:42Z</time>
      </trkpt>
      <trkpt lat="36.895980" lon="-113.909900">
        <ele>582.619</ele>
        <time>2018-12-28T06:37:02Z</time>
      </trkpt>
      <trkpt lat="36.896060" lon="-113.909760">
        <ele>582.709</ele>
        <time>2018-12-28T06:37:22Z</time>
      </trkpt>
      <trkpt lat="36.896160" lon="-113.909560">
        <ele>582.819</ele>
        <time>2018-12-28T06:37:42Z</time>
      </trkpt>
      <trkpt lat="36.896240" lon="-113.909420">
        <ele>582.908</ele>
        <time>2018-12-28T06:38:02Z</time>
      </trkpt>
      <trkpt lat="36.896310" lon="-113.909310">
        <ele>583.044</ele>
        <time>2018-12-28T06:38:22Z</time>
      </trkpt>
      <trkpt lat="36.896420" lon="-113.909120">
        <ele>583.192</ele>
        <time>2018-12-28T06:38:42Z</time>
      </trkpt>
      <trkpt lat="36.896490" lon="-113.909000">
        <ele>583.247</ele>
        <time>2018-12-28T06:39:02Z</time>
      </trkpt>
      <trkpt lat="36.896560" lon="-113.908880">
        <ele>583.358</ele>
        <time>2018-12-28T06:39:22Z</time>
      </trkpt>
      <trkpt lat="36.896630" lon="-113.908760">
        <ele>583.352</ele>
        <time>2018-12-28T06:39:42Z</time>
      </trkpt>
      <trkpt lat="36.896690" lon="-113.908660">
        <ele>583.456</ele>
        <time>2018-12-28T06:40:02Z</time>
      </trkpt>
      <trkpt lat="36.896760" lon="-113.908550">
        <ele>583.565</ele>
        <time>2018-12-28T06:40:22Z</time>
      </trkpt>
      <trkpt lat="36.896800" lon="-113.908470">
        <ele>583.510</ele>
        <time>2018-12-28T06:40:42Z</time>
      </trkpt>
      <trkpt lat="36.899160" lon="-113.904500">
        <ele>584.319</ele>
        <time>2018-12-28T06:41:02Z</time>
      </trkpt>
      <trkpt lat="36.899470" lon="-113.903970">
        <ele>584.409</ele>
        <time>2018-12-28T06:41:22Z</time>
      </trkpt>
      <trkpt lat="36.900270" lon="-113.902620">
        <ele>584.819</ele>
        <time>2018-12-28T06:41:42Z</time>
      </trkpt>
      <trkpt lat="36.900680" lon="-113.901930">
        <ele>585.008</ele>
        <time>2018-12-28T06:42:02Z</time>
      </trkpt>
      <trkpt lat="36.901130" lon="-113.901180">
        <ele>585.274</ele>
        <time>2018-12-28T06:42:22Z</time>
      </trkpt>
      <trkpt lat="36.901310" lon="-113.900870">
        <ele>585.362</ele>
        <time>2018-12-28T06:42:42Z</time>
      </trkpt>
      <trkpt lat="36.901380" lon="-113.900740">
        <ele>585.337</ele>
        <time>2018-12-28T06:43:02Z</time>
      </trkpt>
      <trkpt lat="36.901520" lon="-113.900520">
        <ele>585.418</ele>
        <time>2018-12-28T06:43:22Z</time>
      </trkpt>
      <trkpt lat="36.901650" lon="-113.900300">
        <ele>585.462</ele>
        <time>2018-12-28T06:43:42Z</time>
      </trkpt>
      <trkpt lat="36.901780" lon="-113.900090">
        <ele>585.496</ele>
        <time>2018-12-28T06:44:02Z</time>
      </trkpt>
      <trkpt lat="36.902040" lon="-113.899650">
        <ele>585.525</ele>
        <time>2018-12-28T06:44:22Z</time>
      </trkpt>
      <trkpt lat="36.902300" lon="-113.899210">
        <ele>585.650</ele>
        <time>2018-12-28T06:44:42Z</time>
      </trkpt>
      <trkpt lat="36.902550" lon="-113.898770">
        <ele>585.823</ele>
        <time>2018-12-28T06:45:02Z</time>
      </trkpt>
      <trkpt lat="36.902760" lon="-113.898440">
        <ele>586.183</ele>
        <time>2018-12-28T06:45:22Z</time>
      </trkpt>
      <trkpt lat="36.903020" lon="-113.898000">
        <ele>586.511</ele>
        <time>2018-12-28T06:45:42Z</time>
      </trkpt>
      <trkpt lat="36.903220" lon="-113.897670">
        <ele>586.808</ele>
        <time>2018-12-28T06:46:02Z</time>
      </trkpt>
      <trkpt lat="36.903410" lon="-113.897340">
        <ele>587.085</ele>
        <time>2018-12-28T06:46:22Z</time>
      </trkpt>
      <trkpt lat="36.904000" lon="-113.896350">
        <ele>587.213</ele>
        <time>2018-12-28T06:46:42Z</time>
      </trkpt>
      <trkpt lat="36.905670" lon="-113.893520">
        <ele>588.058</ele>
        <time>2018-12-28T06:47:02Z</time>
      </trkpt>
      <trkpt lat="36.906020" lon="-113.892940">
        <ele>588.679</ele>
        <time>2018-12-28T06:47:22Z</time>
      </trkpt>
      <trkpt lat="36.906080" lon="-113.892830">
        <ele>588.733</ele>
        <time>2018-12-28T06:47:42Z</time>
      </trkpt>
      <trkpt lat="36.906150" lon="-113.892720">
        <ele>588.867</ele>
        <time>2018-12-28T06:48:02Z</time>
      </trkpt>
      <trkpt lat="36.906280" lon="-113.892510">
        <ele>588.966</ele>
        <time>2018-12-28T06:48:22Z</time>
      </trkpt>
      <trkpt lat="36.906410" lon="-113.892290">
        <ele>589.131</ele>
        <time>2018-12-28T06:48:42Z</time>
      </trkpt>
      <trkpt lat="36.907110" lon="-113.891090">
        <ele>590.021</ele>
        <time>2018-12-28T06:49:02Z</time>
      </trkpt>
      <trkpt lat="36.907380" lon="-113.890650">
        <ele>590.241</ele>
        <time>2018-12-28T06:49:22Z</time>
      </trkpt>
      <trkpt lat="36.908100" lon="-113.889430">
        <ele>590.805</ele>
        <time>2018-12-28T06:49:42Z</time>
      </trkpt>
      <trkpt lat="36.908350" lon="-113.889000">
        <ele>591.108</ele>
        <time>2018-12-28T06:50:02Z</time>
      </trkpt>
      <trkpt lat="36.908870" lon="-113.888130">
        <ele>592.655</ele>
        <time>2018-12-28T06:50:22Z</time>
      </trkpt>
      <trkpt lat="36.910900" lon="-113.884720">
        <ele>594.713</ele>
        <time>2018-12-28T06:50:42Z</time>
      </trkpt>
      <trkpt lat="36.911680" lon="-113.883400">
        <ele>595.268</ele>
        <time>2018-12-28T06:51:02Z</time>
      </trkpt>
      <trkpt lat="36.913570" lon="-113.880210">
        <ele>597.549</ele>
        <time>2018-12-28T06:51:22Z</time>
      </trkpt>
      <trkpt lat="36.914810" lon="-113.878110">
        <ele>600.923</ele>
        <time>2018-12-28T06:51:42Z</time>
      </trkpt>
      <trkpt lat="36.915060" lon="-113.877700">
        <ele>601.317</ele>
        <time>2018-12-28T06:52:02Z</time>
      </trkpt>
      <trkpt lat="36.915190" lon="-113.877480">
        <ele>601.536</ele>
        <time>2018-12-28T06:52:22Z</time>
      </trkpt>
      <trkpt lat="36.915320" lon="-113.877260">
        <ele>601.541</ele>
        <time>2018-12-28T06:52:42Z</time>
      </trkpt>
      <trkpt lat="36.915450" lon="-113.877040">
        <ele>601.578</ele>
        <time>2018-12-28T06:53:02Z</time>
      </trkpt>
      <trkpt lat="36.915580" lon="-113.876820">
        <ele>601.533</ele>
        <time>2018-12-28T06:53:22Z</time>
      </trkpt>
      <trkpt lat="36.915710" lon="-113.876600">
        <ele>601.626</ele>
        <time>2018-12-28T06:53:42Z</time>
      </trkpt>
      <trkpt lat="36.915840" lon="-113.876380">
        <ele>601.708</ele>
        <time>2018-12-28T06:54:02Z</time>
      </trkpt>
      <trkpt lat="36.915970" lon="-113.876170">
        <ele>601.730</ele>
        <time>2018-12-28T06:54:22Z</time>
      </trkpt>
      <trkpt lat="36.916050" lon="-113.876030">
        <ele>601.958</ele>
        <time>2018-12-28T06:54:42Z</time>
      </trkpt>
      <trkpt lat="36.916110" lon="-113.875920">
        <ele>602.143</ele>
        <time>2018-12-28T06:55:02Z</time>
      </trkpt>
      <trkpt lat="36.916220" lon="-113.875720">
        <ele>602.424</ele>
        <time>2018-12-28T06:55:22Z</time>
      </trkpt>
      <trkpt lat="36.916340" lon="-113.875490">
        <ele>602.948</ele>
        <time>2018-12-28T06:55:42Z</time>
      </trkpt>
      <trkpt lat="36.916460" lon="-113.875260">
        <ele>603.292</ele>
        <time>2018-12-28T06:56:02Z</time>
      </trkpt>
      <trkpt lat="36.916570" lon="-113.875030">
        <ele>603.391</ele>
        <time>2018-12-28T06:56:22Z</time>
      </trkpt>
      <trkpt lat="36.916690" lon="-113.874780">
        <ele>603.396</ele>
        <time>2018-12-28T06:56:42Z</time>
      </trkpt>
      <trkpt lat="36.916790" lon="-113.874550">
        <ele>603.474</ele>
        <time>2018-12-28T06:57:02Z</time>
      </trkpt>
      <trkpt lat="36.916890" lon="-113.874310">
        <ele>603.656</ele>
        <time>2018-12-28T06:57:22Z</time>
      </trkpt>
      <trkpt lat="36.916990" lon="-113.874070">
        <ele>602.821</ele>
        <time>2018-12-28T06:57:42Z</time>
      </trkpt>
      <trkpt lat="36.917080" lon="-113.873820">
        <ele>602.208</ele>
        <time>2018-12-28T06:58:02Z</time>
      </trkpt>
      <trkpt lat="36.917180" lon="-113.873550">
        <ele>601.850</ele>
        <time>2018-12-28T06:58:22Z</time>
      </trkpt>
      <trkpt lat="36.917300" lon="-113.873200">
        <ele>602.688</ele>
        <time>2018-12-28T06:58:42Z</time>
      </trkpt>
      <trkpt lat="36.917340" lon="-113.873060">
        <ele>603.293</ele>
        <time>2018-12-28T06:59:02Z</time>
      </trkpt>
      <trkpt lat="36.917390" lon="-113.872920">
        <ele>603.864</ele>
        <time>2018-12-28T06:59:22Z</time>
      </trkpt>
      <trkpt lat="36.917420" lon="-113.872790">
        <ele>604.418</ele>
        <time>2018-12-28T06:59:42Z</time>
      </trkpt>
      <trkpt lat="36.917480" lon="-113.872550">
        <ele>605.122</ele>
        <time>2018-12-28T07:00:02Z</time>
      </trkpt>
      <trkpt lat="36.917530" lon="-113.872390">
        <ele>605.411</ele>
        <time>2018-12-28T07:00:22Z</time>
      </trkpt>
      <trkpt lat="36.917620" lon="-113.872010">
        <ele>605.856</ele>
        <time>2018-12-28T07:00:42Z</time>
      </trkpt>
      <trkpt lat="36.917660" lon="-113.871840">
        <ele>605.791</ele>
        <time>2018-12-28T07:01:02Z</time>
      </trkpt>
      <trkpt lat="36.917730" lon="-113.871530">
        <ele>605.781</ele>
        <time>2018-12-28T07:01:22Z</time>
      </trkpt>
      <trkpt lat="36.917760" lon="-113.871380">
        <ele>605.619</ele>
        <time>2018-12-28T07:01:42Z</time>
      </trkpt>
      <trkpt lat="36.917790" lon="-113.871230">
        <ele>605.508</ele>
        <time>2018-12-28T07:02:02Z</time>
      </trkpt>
      <trkpt lat="36.917810" lon="-113.871100">
        <ele>605.472</ele>
        <time>2018-12-28T07:02:22Z</time>
      </trkpt>
      <trkpt lat="36.917850" lon="-113.870860">
        <ele>605.290</ele>
        <time>2018-12-28T07:02:42Z</time>
      </trkpt>
      <trkpt lat="36.917880" lon="-113.870640">
        <ele>605.085</ele>
        <time>2018-12-28T07:03:02Z</time>
      </trkpt>
      <trkpt lat="36.917910" lon="-113.870420">
        <ele>604.876</ele>
        <time>2018-12-28T07:03:22Z</time>
      </trkpt>
      <trkpt lat="36.917940" lon="-113.870160">
        <ele>604.620</ele>
        <time>2018-12-28T07:03:42Z</time>
      </trkpt>
      <trkpt lat="36.917960" lon="-113.870020">
        <ele>604.494</ele>
        <time>2018-12-28T07:04:02Z</time>
      </trkpt>
      <trkpt lat="36.917980" lon="-113.869760">
        <ele>604.513</ele>
        <time>2018-12-28T07:04:22Z</time>
      </trkpt>
      <trkpt lat="36.918000" lon="-113.869570">
        <ele>604.648</ele>
        <time>2018-12-28T07:04:42Z</time>
      </trkpt>
      <trkpt lat="36.918010" lon="-113.869330">
        <ele>604.768</ele>
        <time>2018-12-28T07:05:02Z</time>
      </trkpt>
      <trkpt lat="36.918020" lon="-113.869080">
        <ele>604.742</ele>
        <time>2018-12-28T07:05:22Z</time>
      </trkpt>
      <trkpt lat="36.918030" lon="-113.868780">
        <ele>604.426</ele>
        <time>2018-12-28T07:05:42Z</time>
      </trkpt>
      <trkpt lat="36.918040" lon="-113.868530">
        <ele>604.108</ele>
        <time>2018-12-28T07:06:02Z</time>
      </trkpt>
      <trkpt lat="36.918040" lon="-113.868250">
        <ele>603.729</ele>
        <time>2018-12-28T07:06:22Z</time>
      </trkpt>
      <trkpt lat="36.918030" lon="-113.867990">
        <ele>603.367</ele>
        <time>2018-12-28T07:06:42Z</time>
      </trkpt>
      <trkpt lat="36.918030" lon="-113.867830">
        <ele>603.042</ele>
        <time>2018-12-28T07:07:02Z</time>
      </trkpt>
      <trkpt lat="36.917990" lon="-113.865260">
        <ele>602.093</ele>
        <time>2018-12-28T07:07:22Z</time>
      </trkpt>
      <trkpt lat="36.917990" lon="-113.865110">
        <ele>603.097</ele>
        <time>2018-12-28T07:07:42Z</time>
      </trkpt>
      <trkpt lat="36.917990" lon="-113.864960">
        <ele>603.531</ele>
        <time>2018-12-28T07:08:02Z</time>
      </trkpt>
      <trkpt lat="36.918000" lon="-113.864840">
        <ele>603.780</ele>
        <time>2018-12-28T07:08:22Z</time>
      </trkpt>
      <trkpt lat="36.918000" lon="-113.864690">
        <ele>603.545</ele>
        <time>2018-12-28T07:08:42Z</time>
      </trkpt>
      <trkpt lat="36.918020" lon="-113.864430">
        <ele>603.818</ele>
        <time>2018-12-28T07:09:02Z</time>
      </trkpt>
      <trkpt lat="36.918040" lon="-113.864280">
        <ele>604.398</ele>
        <time>2018-12-28T07:09:22Z</time>
      </trkpt>
      <trkpt lat="36.918070" lon="-113.864010">
        <ele>603.717</ele>
        <time>2018-12-28T07:09:42Z</time>
      </trkpt>
      <trkpt lat="36.918090" lon="-113.863880">
        <ele>601.808</ele>
        <time>2018-12-28T07:10:02Z</time>
      </trkpt>
      <trkpt lat="36.918110" lon="-113.863750">
        <ele>600.414</ele>
        <time>2018-12-28T07:10:22Z</time>
      </trkpt>
      <trkpt lat="36.918140" lon="-113.863610">
        <ele>601.122</ele>
        <time>2018-12-28T07:10:42Z</time>
      </trkpt>
      <trkpt lat="36.918170" lon="-113.863480">
        <ele>601.627</ele>
        <time>2018-12-28T07:11:02Z</time>
      </trkpt>
      <trkpt lat="36.918210" lon="-113.863320">
        <ele>601.828</ele>
        <time>2018-12-28T07:11:22Z</time>
      </trkpt>
      <trkpt lat="36.918270" lon="-113.863110">
        <ele>603.412</ele>
        <time>2018-12-28T07:11:42Z</time>
      </trkpt>
      <trkpt lat="36.918310" lon="-113.862990">
        <ele>603.566</ele>
        <time>2018-12-28T07:12:02Z</time>
      </trkpt>
      <trkpt lat="36.918360" lon="-113.862840">
        <ele>603.085</ele>
        <time>2018-12-28T07:12:22Z</time>
      </trkpt>
      <trkpt lat="36.918410" lon="-113.862720">
        <ele>602.250</ele>
        <time>2018-12-28T07:12:42Z</time>
      </trkpt>
      <trkpt lat="36.918480" lon="-113.862540">
        <ele>600.667</ele>
        <time>2018-12-28T07:13:02Z</time>
      </trkpt>
      <trkpt lat="36.918550" lon="-113.862390">
        <ele>599.281</ele>
        <time>2018-12-28T07:13:22Z</time>
      </trkpt>
      <trkpt lat="36.918620" lon="-113.862240">
        <ele>598.819</ele>
        <time>2018-12-28T07:13:42Z</time>
      </trkpt>
      <trkpt lat="36.918680" lon="-113.862120">
        <ele>598.508</ele>
        <time>2018-12-28T07:14:02Z</time>
      </trkpt>
      <trkpt lat="36.918750" lon="-113.862010">
        <ele>598.359</ele>
        <time>2018-12-28T07:14:22Z</time>
      </trkpt>
      <trkpt lat="36.918810" lon="-113.861900">
        <ele>597.857</ele>
        <time>2018-12-28T07:14:42Z</time>
      </trkpt>
      <trkpt lat="36.918880" lon="-113.861780">
        <ele>599.412</ele>
        <time>2018-12-28T07:15:02Z</time>
      </trkpt>
      <trkpt lat="36.918990" lon="-113.861620">
        <ele>600.233</ele>
        <time>2018-12-28T07:15:22Z</time>
      </trkpt>
      <trkpt lat="36.919090" lon="-113.861490">
        <ele>599.377</ele>
        <time>2018-12-28T07:15:42Z</time>
      </trkpt>
      <trkpt lat="36.919250" lon="-113.861290">
        <ele>600.191</ele>
        <time>2018-12-28T07:16:02Z</time>
      </trkpt>
      <trkpt lat="36.919410" lon="-113.861100">
        <ele>600.080</ele>
        <time>2018-12-28T07:16:22Z</time>
      </trkpt>
      <trkpt lat="36.919580" lon="-113.860920">
        <ele>598.855</ele>
        <time>2018-12-28T07:16:42Z</time>
      </trkpt>
      <trkpt lat="36.919760" lon="-113.860720">
        <ele>599.214</ele>
        <time>2018-12-28T07:17:02Z</time>
      </trkpt>
      <trkpt lat="36.919910" lon="-113.860560">
        <ele>598.254</ele>
        <time>2018-12-28T07:17:22Z</time>
      </trkpt>
      <trkpt lat="36.920070" lon="-113.860380">
        <ele>598.709</ele>
        <time>2018-12-28T07:17:42Z</time>
      </trkpt>
      <trkpt lat="36.920150" lon="-113.860290">
        <ele>597.608</ele>
        <time>2018-12-28T07:18:02Z</time>
      </trkpt>
      <trkpt lat="36.920230" lon="-113.860200">
        <ele>597.664</ele>
        <time>2018-12-28T07:18:22Z</time>
      </trkpt>
      <trkpt lat="36.920310" lon="-113.860110">
        <ele>597.932</ele>
        <time>2018-12-28T07:18:42Z</time>
      </trkpt>
      <trkpt lat="36.920390" lon="-113.860000">
        <ele>597.727</ele>
        <time>2018-12-28T07:19:02Z</time>
      </trkpt>
      <trkpt lat="36.920470" lon="-113.859900">
        <ele>598.498</ele>
        <time>2018-12-28T07:19:22Z</time>
      </trkpt>
      <trkpt lat="36.920540" lon="-113.859790">
        <ele>599.642</ele>
        <time>2018-12-28T07:19:42Z</time>
      </trkpt>
      <trkpt lat="36.920620" lon="-113.859660">
        <ele>598.536</ele>
        <time>2018-12-28T07:20:02Z</time>
      </trkpt>
      <trkpt lat="36.920670" lon="-113.859580">
        <ele>596.435</ele>
        <time>2018-12-28T07:20:22Z</time>
      </trkpt>
      <trkpt lat="36.920730" lon="-113.859480">
        <ele>597.570</ele>
        <time>2018-12-28T07:20:42Z</time>
      </trkpt>
      <trkpt lat="36.920790" lon="-113.859350">
        <ele>597.941</ele>
        <time>2018-12-28T07:21:02Z</time>
      </trkpt>
      <trkpt lat="36.920890" lon="-113.859140">
        <ele>597.281</ele>
        <time>2018-12-28T07:21:22Z</time>
      </trkpt>
      <trkpt lat="36.920980" lon="-113.858920">
        <ele>593.709</ele>
        <time>2018-12-28T07:21:42Z</time>
      </trkpt>
      <trkpt lat="36.921840" lon="-113.856580">
        <ele>595.108</ele>
        <time>2018-12-28T07:22:02Z</time>
      </trkpt>
      <trkpt lat="36.921920" lon="-113.856350">
        <ele>599.877</ele>
        <time>2018-12-28T07:22:22Z</time>
      </trkpt>
      <trkpt lat="36.921990" lon="-113.856140">
        <ele>601.285</ele>
        <time>2018-12-28T07:22:42Z</time>
      </trkpt>
      <trkpt lat="36.922060" lon="-113.855950">
        <ele>600.720</ele>
        <time>2018-12-28T07:23:02Z</time>
      </trkpt>
      <trkpt lat="36.922120" lon="-113.855730">
        <ele>600.961</ele>
        <time>2018-12-28T07:23:22Z</time>
      </trkpt>
      <trkpt lat="36.922150" lon="-113.855590">
        <ele>601.025</ele>
        <time>2018-12-28T07:23:42Z</time>
      </trkpt>
      <trkpt lat="36.922180" lon="-113.855440">
        <ele>601.179</ele>
        <time>2018-12-28T07:24:02Z</time>
      </trkpt>
      <trkpt lat="36.922210" lon="-113.855310">
        <ele>600.728</ele>
        <time>2018-12-28T07:24:22Z</time>
      </trkpt>
      <trkpt lat="36.922230" lon="-113.855150">
        <ele>600.783</ele>
        <time>2018-12-28T07:24:42Z</time>
      </trkpt>
      <trkpt lat="36.922240" lon="-113.855010">
        <ele>600.853</ele>
        <time>2018-12-28T07:25:02Z</time>
      </trkpt>
      <trkpt lat="36.922250" lon="-113.854860">
        <ele>600.904</ele>
        <time>2018-12-28T07:25:22Z</time>
      </trkpt>
      <trkpt lat="36.922250" lon="-113.854740">
        <ele>601.214</ele>
        <time>2018-12-28T07:25:42Z</time>
      </trkpt>
      <trkpt lat="36.922250" lon="-113.854590">
        <ele>601.608</ele>
        <time>2018-12-28T07:26:02Z</time>
      </trkpt>
      <trkpt lat="36.922240" lon="-113.854440">
        <ele>602.488</ele>
        <time>2018-12-28T07:26:22Z</time>
      </trkpt>
      <trkpt lat="36.922230" lon="-113.854280">
        <ele>603.166</ele>
        <time>2018-12-28T07:26:42Z</time>
      </trkpt>
      <trkpt lat="36.922210" lon="-113.854130">
        <ele>603.861</ele>
        <time>2018-12-28T07:27:02Z</time>
      </trkpt>
      <trkpt lat="36.922180" lon="-113.853970">
        <ele>604.532</ele>
        <time>2018-12-28T07:27:22Z</time>
      </trkpt>
      <trkpt lat="36.922150" lon="-113.853860">
        <ele>605.036</ele>
        <time>2018-12-28T07:27:42Z</time>
      </trkpt>
      <trkpt lat="36.922120" lon="-113.853740">
        <ele>605.420</ele>
        <time>2018-12-28T07:28:02Z</time>
      </trkpt>
      <trkpt lat="36.922090" lon="-113.853600">
        <ele>605.389</ele>
        <time>2018-12-28T07:28:22Z</time>
      </trkpt>
      <trkpt lat="36.922050" lon="-113.853480">
        <ele>605.754</ele>
        <time>2018-12-28T07:28:42Z</time>
      </trkpt>
      <trkpt lat="36.922000" lon="-113.853350">
        <ele>605.975</ele>
        <time>2018-12-28T07:29:02Z</time>
      </trkpt>
      <trkpt lat="36.921950" lon="-113.853230">
        <ele>606.028</ele>
        <time>2018-12-28T07:29:22Z</time>
      </trkpt>
      <trkpt lat="36.921900" lon="-113.853110">
        <ele>605.920</ele>
        <time>2018-12-28T07:29:42Z</time>
      </trkpt>
      <trkpt lat="36.921830" lon="-113.852960">
        <ele>605.808</ele>
        <time>2018-12-28T07:30:02Z</time>
      </trkpt>
      <trkpt lat="36.921740" lon="-113.852800">
        <ele>606.870</ele>
        <time>2018-12-28T07:30:22Z</time>
      </trkpt>
      <trkpt lat="36.921630" lon="-113.852640">
        <ele>606.288</ele>
        <time>2018-12-28T07:30:42Z</time>
      </trkpt>
      <trkpt lat="36.921510" lon="-113.852460">
        <ele>606.723</ele>
        <time>2018-12-28T07:31:02Z</time>
      </trkpt>
      <trkpt lat="36.921420" lon="-113.852360">
        <ele>605.834</ele>
        <time>2018-12-28T07:31:22Z</time>
      </trkpt>
      <trkpt lat="36.921340" lon="-113.852280">
        <ele>605.958</ele>
        <time>2018-12-28T07:31:42Z</time>
      </trkpt>
      <trkpt lat="36.921260" lon="-113.852190">
        <ele>605.882</ele>
        <time>2018-12-28T07:32:02Z</time>
      </trkpt>
      <trkpt lat="36.921160" lon="-113.852090">
        <ele>606.041</ele>
        <time>2018-12-28T07:32:22Z</time>
      </trkpt>
      <trkpt lat="36.921070" lon="-113.852020">
        <ele>605.936</ele>
        <time>2018-12-28T07:32:42Z</time>
      </trkpt>
      <trkpt lat="36.920990" lon="-113.851960">
        <ele>605.716</ele>
        <time>2018-12-28T07:33:02Z</time>
      </trkpt>
      <trkpt lat="36.920900" lon="-113.851890">
        <ele>605.876</ele>
        <time>2018-12-28T07:33:22Z</time>
      </trkpt>
      <trkpt lat="36.920800" lon="-113.851830">
        <ele>605.613</ele>
        <time>2018-12-28T07:33:42Z</time>
      </trkpt>
      <trkpt lat="36.920720" lon="-113.851770">
        <ele>605.008</ele>
        <time>2018-12-28T07:34:02Z</time>
      </trkpt>
      <trkpt lat="36.920620" lon="-113.851720">
        <ele>604.934</ele>
        <time>2018-12-28T07:34:22Z</time>
      </trkpt>
      <trkpt lat="36.920510" lon="-113.851660">
        <ele>604.742</ele>
        <time>2018-12-28T07:34:42Z</time>
      </trkpt>
      <trkpt lat="36.920390" lon="-113.851610">
        <ele>604.857</ele>
        <time>2018-12-28T07:35:02Z</time>
      </trkpt>
      <trkpt lat="36.920090" lon="-113.851470">
        <ele>604.598</ele>
        <time>2018-12-28T07:35:22Z</time>
      </trkpt>
      <trkpt lat="36.919890" lon="-113.851390">
        <ele>604.552</ele>
        <time>2018-12-28T07:35:42Z</time>
      </trkpt>
      <trkpt lat="36.919720" lon="-113.851300">
        <ele>604.686</ele>
        <time>2018-12-28T07:36:02Z</time>
      </trkpt>
      <trkpt lat="36.919500" lon="-113.851200">
        <ele>605.095</ele>
        <time>2018-12-28T07:36:22Z</time>
      </trkpt>
      <trkpt lat="36.919370" lon="-113.851120">
        <ele>605.160</ele>
        <time>2018-12-28T07:36:42Z</time>
      </trkpt>
      <trkpt lat="36.919280" lon="-113.851070">
        <ele>605.798</ele>
        <time>2018-12-28T07:37:02Z</time>
      </trkpt>
      <trkpt lat="36.919180" lon="-113.851000">
        <ele>605.815</ele>
        <time>2018-12-28T07:37:22Z</time>
      </trkpt>
      <trkpt lat="36.919070" lon="-113.850920">
        <ele>605.226</ele>
        <time>2018-12-28T07:37:42Z</time>
      </trkpt>
      <trkpt lat="36.918980" lon="-113.850840">
        <ele>604.908</ele>
        <time>2018-12-28T07:38:02Z</time>
      </trkpt>
      <trkpt lat="36.918890" lon="-113.850760">
        <ele>604.932</ele>
        <time>2018-12-28T07:38:22Z</time>
      </trkpt>
      <trkpt lat="36.918800" lon="-113.850680">
        <ele>604.920</ele>
        <time>2018-12-28T07:38:42Z</time>
      </trkpt>
      <trkpt lat="36.918720" lon="-113.850590">
        <ele>604.975</ele>
        <time>2018-12-28T07:39:02Z</time>
      </trkpt>
      <trkpt lat="36.918640" lon="-113.850510">
        <ele>605.276</ele>
        <time>2018-12-28T07:39:22Z</time>
      </trkpt>
      <trkpt lat="36.918560" lon="-113.850410">
        <ele>604.970</ele>
        <time>2018-12-28T07:39:42Z</time>
      </trkpt>
      <trkpt lat="36.918500" lon="-113.850310">
        <ele>604.584</ele>
        <time>2018-12-28T07:40:02Z</time>
      </trkpt>
      <trkpt lat="36.918420" lon="-113.850200">
        <ele>604.373</ele>
        <time>2018-12-28T07:40:22Z</time>
      </trkpt>
      <trkpt lat="36.918360" lon="-113.850100">
        <ele>604.078</ele>
        <time>2018-12-28T07:40:42Z</time>
      </trkpt>
      <trkpt lat="36.918260" lon="-113.849920">
        <ele>604.243</ele>
        <time>2018-12-28T07:41:02Z</time>
      </trkpt>
      <trkpt lat="36.918180" lon="-113.849770">
        <ele>604.864</ele>
        <time>2018-12-28T07:41:22Z</time>
      </trkpt>
      <trkpt lat="36.918130" lon="-113.849660">
        <ele>605.510</ele>
        <time>2018-12-28T07:41:42Z</time>
      </trkpt>
      <trkpt lat="36.918080" lon="-113.849540">
        <ele>606.008</ele>
        <time>2018-12-28T07:42:02Z</time>
      </trkpt>
      <trkpt lat="36.918020" lon="-113.849390">
        <ele>606.127</ele>
        <time>2018-12-28T07:42:22Z</time>
      </trkpt>
      <trkpt lat="36.917980" lon="-113.849270">
        <ele>605.885</ele>
        <time>2018-12-28T07:42:42Z</time>
      </trkpt>
      <trkpt lat="36.917950" lon="-113.849160">
        <ele>605.750</ele>
        <time>2018-12-28T07:43:02Z</time>
      </trkpt>
      <trkpt lat="36.917920" lon="-113.849040">
        <ele>605.541</ele>
        <time>2018-12-28T07:43:22Z</time>
      </trkpt>
      <trkpt lat="36.917880" lon="-113.848900">
        <ele>606.365</ele>
        <time>2018-12-28T07:43:42Z</time>
      </trkpt>
      <trkpt lat="36.917850" lon="-113.848780">
        <ele>606.589</ele>
        <time>2018-12-28T07:44:02Z</time>
      </trkpt>
      <trkpt lat="36.917820" lon="-113.848630">
        <ele>606.268</ele>
        <time>2018-12-28T07:44:22Z</time>
      </trkpt>
      <trkpt lat="36.917770" lon="-113.848410">
        <ele>605.813</ele>
        <time>2018-12-28T07:44:42Z</time>
      </trkpt>
      <trkpt lat="36.917750" lon="-113.848290">
        <ele>605.753</ele>
        <time>2018-12-28T07:45:02Z</time>
      </trkpt>
      <trkpt lat="36.917710" lon="-113.848140">
        <ele>606.004</ele>
        <time>2018-12-28T07:45:22Z</time>
      </trkpt>
      <trkpt lat="36.917680" lon="-113.848010">
        <ele>606.214</ele>
        <time>2018-12-28T07:45:42Z</time>
      </trkpt>
      <trkpt lat="36.917650" lon="-113.847880">
        <ele>605.708</ele>
        <time>2018-12-28T07:46:02Z</time>
      </trkpt>
      <trkpt lat="36.917620" lon="-113.847760">
        <ele>606.158</ele>
        <time>2018-12-28T07:46:22Z</time>
      </trkpt>
      <trkpt lat="36.917590" lon="-113.847630">
        <ele>606.146</ele>
        <time>2018-12-28T07:46:42Z</time>
      </trkpt>
      <trkpt lat="36.917550" lon="-113.847500">
        <ele>606.691</ele>
        <time>2018-12-28T07:47:02Z</time>
      </trkpt>
      <trkpt lat="36.917500" lon="-113.847380">
        <ele>606.862</ele>
        <time>2018-12-28T07:47:22Z</time>
      </trkpt>
      <trkpt lat="36.917460" lon="-113.847260">
        <ele>607.266</ele>
        <time>2018-12-28T07:47:42Z</time>
      </trkpt>
      <trkpt lat="36.917420" lon="-113.847150">
        <ele>607.360</ele>
        <time>2018-12-28T07:48:02Z</time>
      </trkpt>
      <trkpt lat="36.917380" lon="-113.847050">
        <ele>606.989</ele>
        <time>2018-12-28T07:48:22Z</time>
      </trkpt>
      <trkpt lat="36.917300" lon="-113.846890">
        <ele>606.064</ele>
        <time>2018-12-28T07:48:42Z</time>
      </trkpt>
      <trkpt lat="36.917250" lon="-113.846780">
        <ele>605.542</ele>
        <time>2018-12-28T07:49:02Z</time>
      </trkpt>
      <trkpt lat="36.917180" lon="-113.846660">
        <ele>604.822</ele>
        <time>2018-12-28T07:49:22Z</time>
      </trkpt>
      <trkpt lat="36.917120" lon="-113.846560">
        <ele>604.314</ele>
        <time>2018-12-28T07:49:42Z</time>
      </trkpt>
      <trkpt lat="36.917040" lon="-113.846460">
        <ele>604.008</ele>
        <time>2018-12-28T07:50:02Z</time>
      </trkpt>
      <trkpt lat="36.916960" lon="-113.846340">
        <ele>603.737</ele>
        <time>2018-12-28T07:50:22Z</time>
      </trkpt>
      <trkpt lat="36.916890" lon="-113.846260">
        <ele>603.565</ele>
        <time>2018-12-28T07:50:42Z</time>
      </trkpt>
      <trkpt lat="36.916810" lon="-113.846170">
        <ele>603.480</ele>
        <time>2018-12-28T07:51:02Z</time>
      </trkpt>
      <trkpt lat="36.916720" lon="-113.846070">
        <ele>603.371</ele>
        <time>2018-12-28T07:51:22Z</time>
      </trkpt>
      <trkpt lat="36.916590" lon="-113.845940">
        <ele>603.345</ele>
        <time>2018-12-28T07:51:42Z</time>
      </trkpt>
      <trkpt lat="36.916440" lon="-113.845760">
        <ele>603.169</ele>
        <time>2018-12-28T07:52:02Z</time>
      </trkpt>
      <trkpt lat="36.916340" lon="-113.845640">
        <ele>603.198</ele>
        <time>2018-12-28T07:52:22Z</time>
      </trkpt>
      <trkpt lat="36.916250" lon="-113.845550">
        <ele>603.273</ele>
        <time>2018-12-28T07:52:42Z</time>
      </trkpt>
      <trkpt lat="36.916160" lon="-113.845440">
        <ele>603.416</ele>
        <time>2018-12-28T07:53:02Z</time>
      </trkpt>
      <trkpt lat="36.916090" lon="-113.845360">
        <ele>603.576</ele>
        <time>2018-12-28T07:53:22Z</time>
      </trkpt>
      <trkpt lat="36.916010" lon="-113.845260">
        <ele>603.613</ele>
        <time>2018-12-28T07:53:42Z</time>
      </trkpt>
      <trkpt lat="36.915930" lon="-113.845150">
        <ele>603.708</ele>
        <time>2018-12-28T07:54:02Z</time>
      </trkpt>
      <trkpt lat="36.915840" lon="-113.845040">
        <ele>604.094</ele>
        <time>2018-12-28T07:54:22Z</time>
      </trkpt>
      <trkpt lat="36.915750" lon="-113.844890">
        <ele>604.112</ele>
        <time>2018-12-28T07:54:42Z</time>
      </trkpt>
      <trkpt lat="36.915690" lon="-113.844780">
        <ele>604.117</ele>
        <time>2018-12-28T07:55:02Z</time>
      </trkpt>
      <trkpt lat="36.915630" lon="-113.844680">
        <ele>604.578</ele>
        <time>2018-12-28T07:55:22Z</time>
      </trkpt>
      <trkpt lat="36.915570" lon="-113.844580">
        <ele>604.822</ele>
        <time>2018-12-28T07:55:42Z</time>
      </trkpt>
      <trkpt lat="36.915510" lon="-113.844460">
        <ele>605.026</ele>
        <time>2018-12-28T07:56:02Z</time>
      </trkpt>
      <trkpt lat="36.915460" lon="-113.844350">
        <ele>605.225</ele>
        <time>2018-12-28T07:56:22Z</time>
      </trkpt>
      <trkpt lat="36.915420" lon="-113.844240">
        <ele>605.090</ele>
        <time>2018-12-28T07:56:42Z</time>
      </trkpt>
      <trkpt lat="36.915370" lon="-113.844110">
        <ele>605.067</ele>
        <time>2018-12-28T07:57:02Z</time>
      </trkpt>
      <trkpt lat="36.915330" lon="-113.843990">
        <ele>604.381</ele>
        <time>2018-12-28T07:57:22Z</time>
      </trkpt>
      <trkpt lat="36.915290" lon="-113.843850">
        <ele>604.019</ele>
        <time>2018-12-28T07:57:42Z</time>
      </trkpt>
      <trkpt lat="36.915260" lon="-113.843720">
        <ele>603.808</ele>
        <time>2018-12-28T07:58:02Z</time>
      </trkpt>
      <trkpt lat="36.915230" lon="-113.843620">
        <ele>604.089</ele>
        <time>2018-12-28T07:58:22Z</time>
      </trkpt>
      <trkpt lat="36.915210" lon="-113.843480">
        <ele>603.817</ele>
        <time>2018-12-28T07:58:42Z</time>
      </trkpt>
      <trkpt lat="36.915190" lon="-113.843360">
        <ele>603.862</ele>
        <time>2018-12-28T07:59:02Z</time>
      </trkpt>
      <trkpt lat="36.915170" lon="-113.843220">
        <ele>603.983</ele>
        <time>2018-12-28T07:59:22Z</time>
      </trkpt>
      <trkpt lat="36.915160" lon="-113.843100">
        <ele>604.067</ele>
        <time>2018-12-28T07:59:42Z</time>
      </trkpt>
      <trkpt lat="36.915150" lon="-113.842980">
        <ele>604.281</ele>
        <time>2018-12-28T08:00:02Z</time>
      </trkpt>
      <trkpt lat="36.915140" lon="-113.842830">
        <ele>604.560</ele>
        <time>2018-12-28T08:00:22Z</time>
      </trkpt>
      <trkpt lat="36.915130" lon="-113.842620">
        <ele>605.135</ele>
        <time>2018-12-28T08:00:42Z</time>
      </trkpt>
      <trkpt lat="36.915110" lon="-113.842170">
        <ele>600.581</ele>
        <time>2018-12-28T08:01:02Z</time>
      </trkpt>
      <trkpt lat="36.915090" lon="-113.841820">
        <ele>598.361</ele>
        <time>2018-12-28T08:01:22Z</time>
      </trkpt>
      <trkpt lat="36.915050" lon="-113.840830">
        <ele>601.917</ele>
        <time>2018-12-28T08:01:42Z</time>
      </trkpt>
      <trkpt lat="36.915030" lon="-113.840440">
        <ele>610.608</ele>
        <time>2018-12-28T08:02:02Z</time>
      </trkpt>
      <trkpt lat="36.915030" lon="-113.840240">
        <ele>610.211</ele>
        <time>2018-12-28T08:02:22Z</time>
      </trkpt>
      <trkpt lat="36.915020" lon="-113.840110">
        <ele>609.989</ele>
        <time>2018-12-28T08:02:42Z</time>
      </trkpt>
      <trkpt lat="36.915020" lon="-113.839970">
        <ele>609.774</ele>
        <time>2018-12-28T08:03:02Z</time>
      </trkpt>
      <trkpt lat="36.915010" lon="-113.839820">
        <ele>609.725</ele>
        <time>2018-12-28T08:03:22Z</time>
      </trkpt>
      <trkpt lat="36.915000" lon="-113.839680">
        <ele>610.019</ele>
        <time>2018-12-28T08:03:42Z</time>
      </trkpt>
      <trkpt lat="36.914970" lon="-113.838890">
        <ele>611.093</ele>
        <time>2018-12-28T08:04:02Z</time>
      </trkpt>
      <trkpt lat="36.914960" lon="-113.838410">
        <ele>612.982</ele>
        <time>2018-12-28T08:04:22Z</time>
      </trkpt>
      <trkpt lat="36.914950" lon="-113.838240">
        <ele>613.887</ele>
        <time>2018-12-28T08:04:42Z</time>
      </trkpt>
      <trkpt lat="36.914950" lon="-113.838050">
        <ele>614.584</ele>
        <time>2018-12-28T08:05:02Z</time>
      </trkpt>
      <trkpt lat="36.914950" lon="-113.837880">
        <ele>615.107</ele>
        <time>2018-12-28T08:05:22Z</time>
      </trkpt>
      <trkpt lat="36.914960" lon="-113.837740">
        <ele>615.517</ele>
        <time>2018-12-28T08:05:42Z</time>
      </trkpt>
      <trkpt lat="36.914970" lon="-113.837590">
        <ele>616.008</ele>
        <time>2018-12-28T08:06:02Z</time>
      </trkpt>
      <trkpt lat="36.914980" lon="-113.837450">
        <ele>616.471</ele>
        <time>2018-12-28T08:06:22Z</time>
      </trkpt>
      <trkpt lat="36.915000" lon="-113.837310">
        <ele>616.869</ele>
        <time>2018-12-28T08:06:42Z</time>
      </trkpt>
      <trkpt lat="36.915010" lon="-113.837190">
        <ele>617.194</ele>
        <time>2018-12-28T08:07:02Z</time>
      </trkpt>
      <trkpt lat="36.915040" lon="-113.837030">
        <ele>617.625</ele>
        <time>2018-12-28T08:07:22Z</time>
      </trkpt>
      <trkpt lat="36.915080" lon="-113.836830">
        <ele>618.299</ele>
        <time>2018-12-28T08:07:42Z</time>
      </trkpt>
      <trkpt lat="36.915120" lon="-113.836700">
        <ele>618.623</ele>
        <time>2018-12-28T08:08:02Z</time>
      </trkpt>
      <trkpt lat="36.915160" lon="-113.836550">
        <ele>618.972</ele>
        <time>2018-12-28T08:08:22Z</time>
      </trkpt>
      <trkpt lat="36.915210" lon="-113.836400">
        <ele>619.437</ele>
        <time>2018-12-28T08:08:42Z</time>
      </trkpt>
      <trkpt lat="36.915260" lon="-113.836280">
        <ele>620.015</ele>
        <time>2018-12-28T08:09:02Z</time>
      </trkpt>
      <trkpt lat="36.915310" lon="-113.836150">
        <ele>620.665</ele>
        <time>2018-12-28T08:09:22Z</time>
      </trkpt>
      <trkpt lat="36.915350" lon="-113.836040">
        <ele>621.111</ele>
        <time>2018-12-28T08:09:42Z</time>
      </trkpt>
      <trkpt lat="36.915400" lon="-113.835940">
        <ele>621.308</ele>
        <time>2018-12-28T08:10:02Z</time>
      </trkpt>
      <trkpt lat="36.915450" lon="-113.835840">
        <ele>621.884</ele>
        <time>2018-12-28T08:10:22Z</time>
      </trkpt>
      <trkpt lat="36.915520" lon="-113.835700">
        <ele>621.162</ele>
        <time>2018-12-28T08:10:42Z</time>
      </trkpt>
      <trkpt lat="36.915580" lon="-113.835600">
        <ele>620.537</ele>
        <time>2018-12-28T08:11:02Z</time>
      </trkpt>
      <trkpt lat="36.915650" lon="-113.835500">
        <ele>619.178</ele>
        <time>2018-12-28T08:11:22Z</time>
      </trkpt>
      <trkpt lat="36.915720" lon="-113.835400">
        <ele>617.952</ele>
        <time>2018-12-28T08:11:42Z</time>
      </trkpt>
      <trkpt lat="36.915790" lon="-113.835290">
        <ele>618.386</ele>
        <time>2018-12-28T08:12:02Z</time>
      </trkpt>
      <trkpt lat="36.915870" lon="-113.835190">
        <ele>619.065</ele>
        <time>2018-12-28T08:12:22Z</time>
      </trkpt>
      <trkpt lat="36.915940" lon="-113.835100">
        <ele>619.390</ele>
        <time>2018-12-28T08:12:42Z</time>
      </trkpt>
      <trkpt lat="36.916020" lon="-113.835000">
        <ele>619.314</ele>
        <time>2018-12-28T08:13:02Z</time>
      </trkpt>
      <trkpt lat="36.916110" lon="-113.834910">
        <ele>618.954</ele>
        <time>2018-12-28T08:13:22Z</time>
      </trkpt>
      <trkpt lat="36.916180" lon="-113.834830">
        <ele>617.709</ele>
        <time>2018-12-28T08:13:42Z</time>
      </trkpt>
      <trkpt lat="36.916280" lon="-113.834740">
        <ele>617.708</ele>
        <time>2018-12-28T08:14:02Z</time>
      </trkpt>
      <trkpt lat="36.916370" lon="-113.834670">
        <ele>617.924</ele>
        <time>2018-12-28T08:14:22Z</time>
      </trkpt>
      <trkpt lat="36.916520" lon="-113.834550">
        <ele>616.992</ele>
        <time>2018-12-28T08:14:42Z</time>
      </trkpt>
      <trkpt lat="36.916640" lon="-113.834460">
        <ele>616.837</ele>
        <time>2018-12-28T08:15:02Z</time>
      </trkpt>
      <trkpt lat="36.916770" lon="-113.834380">
        <ele>616.818</ele>
        <time>2018-12-28T08:15:22Z</time>
      </trkpt>
      <trkpt lat="36.916940" lon="-113.834280">
        <ele>616.412</ele>
        <time>2018-12-28T08:15:42Z</time>
      </trkpt>
      <trkpt lat="36.917430" lon="-113.834000">
        <ele>616.126</ele>
        <time>2018-12-28T08:16:02Z</time>
      </trkpt>
      <trkpt lat="36.917930" lon="-113.833710">
        <ele>616.285</ele>
        <time>2018-12-28T08:16:22Z</time>
      </trkpt>
      <trkpt lat="36.918810" lon="-113.833220">
        <ele>618.780</ele>
        <time>2018-12-28T08:16:42Z</time>
      </trkpt>
      <trkpt lat="36.918930" lon="-113.833150">
        <ele>618.718</ele>
        <time>2018-12-28T08:17:02Z</time>
      </trkpt>
      <trkpt lat="36.919330" lon="-113.832920">
        <ele>618.798</ele>
        <time>2018-12-28T08:17:22Z</time>
      </trkpt>
      <trkpt lat="36.919710" lon="-113.832700">
        <ele>618.417</ele>
        <time>2018-12-28T08:17:42Z</time>
      </trkpt>
      <trkpt lat="36.919910" lon="-113.832590">
        <ele>617.808</ele>
        <time>2018-12-28T08:18:02Z</time>
      </trkpt>
      <trkpt lat="36.920080" lon="-113.832490">
        <ele>617.374</ele>
        <time>2018-12-28T08:18:22Z</time>
      </trkpt>
      <trkpt lat="36.920210" lon="-113.832420">
        <ele>617.042</ele>
        <time>2018-12-28T08:18:42Z</time>
      </trkpt>
      <trkpt lat="36.920310" lon="-113.832370">
        <ele>616.867</ele>
        <time>2018-12-28T08:19:02Z</time>
      </trkpt>
      <trkpt lat="36.920400" lon="-113.832340">
        <ele>616.938</ele>
        <time>2018-12-28T08:19:22Z</time>
      </trkpt>
      <trkpt lat="36.920500" lon="-113.832290">
        <ele>616.772</ele>
        <time>2018-12-28T08:19:42Z</time>
      </trkpt>
      <trkpt lat="36.920620" lon="-113.832250">
        <ele>616.776</ele>
        <time>2018-12-28T08:20:02Z</time>
      </trkpt>
      <trkpt lat="36.920730" lon="-113.832220">
        <ele>616.725</ele>
        <time>2018-12-28T08:20:22Z</time>
      </trkpt>
      <trkpt lat="36.920840" lon="-113.832180">
        <ele>616.410</ele>
        <time>2018-12-28T08:20:42Z</time>
      </trkpt>
      <trkpt lat="36.920960" lon="-113.832150">
        <ele>616.371</ele>
        <time>2018-12-28T08:21:02Z</time>
      </trkpt>
      <trkpt lat="36.921070" lon="-113.832130">
        <ele>616.141</ele>
        <time>2018-12-28T08:21:22Z</time>
      </trkpt>
      <trkpt lat="36.921220" lon="-113.832110">
        <ele>615.915</ele>
        <time>2018-12-28T08:21:42Z</time>
      </trkpt>
      <trkpt lat="36.921380" lon="-113.832080">
        <ele>615.708</ele>
        <time>2018-12-28T08:22:02Z</time>
      </trkpt>
      <trkpt lat="36.921470" lon="-113.832070">
        <ele>615.740</ele>
        <time>2018-12-28T08:22:22Z</time>
      </trkpt>
      <trkpt lat="36.921590" lon="-113.832060">
        <ele>615.758</ele>
        <time>2018-12-28T08:22:42Z</time>
      </trkpt>
      <trkpt lat="36.921800" lon="-113.832050">
        <ele>615.933</ele>
        <time>2018-12-28T08:23:02Z</time>
      </trkpt>
      <trkpt lat="36.922010" lon="-113.832060">
        <ele>616.314</ele>
        <time>2018-12-28T08:23:22Z</time>
      </trkpt>
      <trkpt lat="36.922190" lon="-113.832060">
        <ele>616.688</ele>
        <time>2018-12-28T08:23:42Z</time>
      </trkpt>
      <trkpt lat="36.923320" lon="-113.832120">
        <ele>627.272</ele>
        <time>2018-12-28T08:24:02Z</time>
      </trkpt>
      <trkpt lat="36.923610" lon="-113.832150">
        <ele>627.941</ele>
        <time>2018-12-28T08:24:22Z</time>
      </trkpt>
      <trkpt lat="36.923990" lon="-113.832170">
        <ele>627.956</ele>
        <time>2018-12-28T08:24:42Z</time>
      </trkpt>
      <trkpt lat="36.924410" lon="-113.832190">
        <ele>628.073</ele>
        <time>2018-12-28T08:25:02Z</time>
      </trkpt>
      <trkpt lat="36.924820" lon="-113.832210">
        <ele>627.685</ele>
        <time>2018-12-28T08:25:22Z</time>
      </trkpt>
      <trkpt lat="36.925060" lon="-113.832220">
        <ele>626.813</ele>
        <time>2018-12-28T08:25:42Z</time>
      </trkpt>
      <trkpt lat="36.925500" lon="-113.832250">
        <ele>621.408</ele>
        <time>2018-12-28T08:26:02Z</time>
      </trkpt>
      <trkpt lat="36.925760" lon="-113.832270">
        <ele>613.120</ele>
        <time>2018-12-28T08:26:22Z</time>
      </trkpt>
      <trkpt lat="36.925990" lon="-113.832300">
        <ele>609.498</ele>
        <time>2018-12-28T08:26:42Z</time>
      </trkpt>
      <trkpt lat="36.926140" lon="-113.832310">
        <ele>609.453</ele>
        <time>2018-12-28T08:27:02Z</time>
      </trkpt>
      <trkpt lat="36.926220" lon="-113.832310">
        <ele>609.434</ele>
        <time>2018-12-28T08:27:22Z</time>
      </trkpt>
      <trkpt lat="36.926300" lon="-113.832310">
        <ele>610.358</ele>
        <time>2018-12-28T08:27:42Z</time>
      </trkpt>
      <trkpt lat="36.926380" lon="-113.832300">
        <ele>611.822</ele>
        <time>2018-12-28T08:28:02Z</time>
      </trkpt>
      <trkpt lat="36.926430" lon="-113.832290">
        <ele>612.891</ele>
        <time>2018-12-28T08:28:22Z</time>
      </trkpt>
      <trkpt lat="36.926490" lon="-113.832260">
        <ele>614.426</ele>
        <time>2018-12-28T08:28:42Z</time>
      </trkpt>
      <trkpt lat="36.926560" lon="-113.832230">
        <ele>617.529</ele>
        <time>2018-12-28T08:29:02Z</time>
      </trkpt>
      <trkpt lat="36.926630" lon="-113.832200">
        <ele>621.800</ele>
        <time>2018-12-28T08:29:22Z</time>
      </trkpt>
      <trkpt lat="36.926720" lon="-113.832150">
        <ele>627.620</ele>
        <time>2018-12-28T08:29:42Z</time>
      </trkpt>
      <trkpt lat="36.926960" lon="-113.832000">
        <ele>640.708</ele>
        <time>2018-12-28T08:30:02Z</time>
      </trkpt>
      <trkpt lat="36.927190" lon="-113.831850">
        <ele>644.855</ele>
        <time>2018-12-28T08:30:22Z</time>
      </trkpt>
      <trkpt lat="36.927340" lon="-113.831750">
        <ele>643.863</ele>
        <time>2018-12-28T08:30:42Z</time>
      </trkpt>
      <trkpt lat="36.927710" lon="-113.831460">
        <ele>645.278</ele>
        <time>2018-12-28T08:31:02Z</time>
      </trkpt>
      <trkpt lat="36.927940" lon="-113.831270">
        <ele>642.219</ele>
        <time>2018-12-28T08:31:22Z</time>
      </trkpt>
      <trkpt lat="36.928210" lon="-113.831010">
        <ele>625.373</ele>
        <time>2018-12-28T08:31:42Z</time>
      </trkpt>
      <trkpt lat="36.928410" lon="-113.830800">
        <ele>617.167</ele>
        <time>2018-12-28T08:32:02Z</time>
      </trkpt>
      <trkpt lat="36.928760" lon="-113.830360">
        <ele>619.116</ele>
        <time>2018-12-28T08:32:22Z</time>
      </trkpt>
      <trkpt lat="36.929480" lon="-113.829400">
        <ele>637.151</ele>
        <time>2018-12-28T08:32:42Z</time>
      </trkpt>
      <trkpt lat="36.929630" lon="-113.829210">
        <ele>639.165</ele>
        <time>2018-12-28T08:33:02Z</time>
      </trkpt>
      <trkpt lat="36.929790" lon="-113.829000">
        <ele>639.568</ele>
        <time>2018-12-28T08:33:22Z</time>
      </trkpt>
      <trkpt lat="36.929950" lon="-113.828820">
        <ele>639.814</ele>
        <time>2018-12-28T08:33:42Z</time>
      </trkpt>
      <trkpt lat="36.930100" lon="-113.828660">
        <ele>639.608</ele>
        <time>2018-12-28T08:34:02Z</time>
      </trkpt>
      <trkpt lat="36.930380" lon="-113.828410">
        <ele>640.079</ele>
        <time>2018-12-28T08:34:22Z</time>
      </trkpt>
      <trkpt lat="36.930540" lon="-113.828270">
        <ele>640.397</ele>
        <time>2018-12-28T08:34:42Z</time>
      </trkpt>
      <trkpt lat="36.930660" lon="-113.828180">
        <ele>640.572</ele>
        <time>2018-12-28T08:35:02Z</time>
      </trkpt>
      <trkpt lat="36.930820" lon="-113.828060">
        <ele>640.953</ele>
        <time>2018-12-28T08:35:22Z</time>
      </trkpt>
      <trkpt lat="36.930940" lon="-113.827970">
        <ele>640.927</ele>
        <time>2018-12-28T08:35:42Z</time>
      </trkpt>
      <trkpt lat="36.931210" lon="-113.827760">
        <ele>641.031</ele>
        <time>2018-12-28T08:36:02Z</time>
      </trkpt>
      <trkpt lat="36.931580" lon="-113.827490">
        <ele>641.150</ele>
        <time>2018-12-28T08:36:22Z</time>
      </trkpt>
      <trkpt lat="36.931880" lon="-113.827270">
        <ele>640.395</ele>
        <time>2018-12-28T08:36:42Z</time>
      </trkpt>
      <trkpt lat="36.932060" lon="-113.827140">
        <ele>640.038</ele>
        <time>2018-12-28T08:37:02Z</time>
      </trkpt>
      <trkpt lat="36.932240" lon="-113.827000">
        <ele>640.370</ele>
        <time>2018-12-28T08:37:22Z</time>
      </trkpt>
      <trkpt lat="36.932440" lon="-113.826860">
        <ele>641.217</ele>
        <time>2018-12-28T08:37:42Z</time>
      </trkpt>
      <trkpt lat="36.932630" lon="-113.826720">
        <ele>641.408</ele>
        <time>2018-12-28T08:38:02Z</time>
      </trkpt>
      <trkpt lat="36.932820" lon="-113.826590">
        <ele>641.696</ele>
        <time>2018-12-28T08:38:22Z</time>
      </trkpt>
      <trkpt lat="36.932990" lon="-113.826470">
        <ele>641.834</ele>
        <time>2018-12-28T08:38:42Z</time>
      </trkpt>
      <trkpt lat="36.933110" lon="-113.826400">
        <ele>642.559</ele>
        <time>2018-12-28T08:39:02Z</time>
      </trkpt>
      <trkpt lat="36.933280" lon="-113.826300">
        <ele>643.130</ele>
        <time>2018-12-28T08:39:22Z</time>
      </trkpt>
      <trkpt lat="36.933480" lon="-113.826200">
        <ele>643.544</ele>
        <time>2018-12-28T08:39:42Z</time>
      </trkpt>
      <trkpt lat="36.933630" lon="-113.826140">
        <ele>643.568</ele>
        <time>2018-12-28T08:40:02Z</time>
      </trkpt>
      <trkpt lat="36.933730" lon="-113.826100">
        <ele>643.217</ele>
        <time>2018-12-28T08:40:22Z</time>
      </trkpt>
      <trkpt lat="36.933820" lon="-113.826070">
        <ele>643.092</ele>
        <time>2018-12-28T08:40:42Z</time>
      </trkpt>
      <trkpt lat="36.934000" lon="-113.826030">
        <ele>642.676</ele>
        <time>2018-12-28T08:41:02Z</time>
      </trkpt>
      <trkpt lat="36.934220" lon="-113.825990">
        <ele>642.490</ele>
        <time>2018-12-28T08:41:22Z</time>
      </trkpt>
      <trkpt lat="36.934440" lon="-113.825960">
        <ele>641.819</ele>
        <time>2018-12-28T08:41:42Z</time>
      </trkpt>
      <trkpt lat="36.934660" lon="-113.825950">
        <ele>641.008</ele>
        <time>2018-12-28T08:42:02Z</time>
      </trkpt>
      <trkpt lat="36.934780" lon="-113.825950">
        <ele>640.590</ele>
        <time>2018-12-28T08:42:22Z</time>
      </trkpt>
      <trkpt lat="36.935000" lon="-113.825960">
        <ele>639.768</ele>
        <time>2018-12-28T08:42:42Z</time>
      </trkpt>
      <trkpt lat="36.935410" lon="-113.825970">
        <ele>638.483</ele>
        <time>2018-12-28T08:43:02Z</time>
      </trkpt>
      <trkpt lat="36.935660" lon="-113.825970">
        <ele>638.144</ele>
        <time>2018-12-28T08:43:22Z</time>
      </trkpt>
      <trkpt lat="36.935850" lon="-113.825970">
        <ele>638.298</ele>
        <time>2018-12-28T08:43:42Z</time>
      </trkpt>
      <trkpt lat="36.936070" lon="-113.825960">
        <ele>638.372</ele>
        <time>2018-12-28T08:44:02Z</time>
      </trkpt>
      <trkpt lat="36.936200" lon="-113.825960">
        <ele>638.541</ele>
        <time>2018-12-28T08:44:22Z</time>
      </trkpt>
      <trkpt lat="36.936310" lon="-113.825950">
        <ele>638.956</ele>
        <time>2018-12-28T08:44:42Z</time>
      </trkpt>
      <trkpt lat="36.936420" lon="-113.825930">
        <ele>639.393</ele>
        <time>2018-12-28T08:45:02Z</time>
      </trkpt>
      <trkpt lat="36.936540" lon="-113.825910">
        <ele>639.965</ele>
        <time>2018-12-28T08:45:22Z</time>
      </trkpt>
      <trkpt lat="36.936640" lon="-113.825890">
        <ele>640.621</ele>
        <time>2018-12-28T08:45:42Z</time>
      </trkpt>
      <trkpt lat="36.936750" lon="-113.825860">
        <ele>641.308</ele>
        <time>2018-12-28T08:46:02Z</time>
      </trkpt>
      <trkpt lat="36.936860" lon="-113.825830">
        <ele>641.822</ele>
        <time>2018-12-28T08:46:22Z</time>
      </trkpt>
      <trkpt lat="36.936960" lon="-113.825800">
        <ele>642.160</ele>
        <time>2018-12-28T08:46:42Z</time>
      </trkpt>
      <trkpt lat="36.937070" lon="-113.825770">
        <ele>642.675</ele>
        <time>2018-12-28T08:47:02Z</time>
      </trkpt>
      <trkpt lat="36.937180" lon="-113.825730">
        <ele>643.176</ele>
        <time>2018-12-28T08:47:22Z</time>
      </trkpt>
      <trkpt lat="36.937270" lon="-113.825690">
        <ele>643.110</ele>
        <time>2018-12-28T08:47:42Z</time>
      </trkpt>
      <trkpt lat="36.937380" lon="-113.825650">
        <ele>644.114</ele>
        <time>2018-12-28T08:48:02Z</time>
      </trkpt>
      <trkpt lat="36.937490" lon="-113.825600">
        <ele>644.623</ele>
        <time>2018-12-28T08:48:22Z</time>
      </trkpt>
      <trkpt lat="36.937590" lon="-113.825550">
        <ele>644.538</ele>
        <time>2018-12-28T08:48:42Z</time>
      </trkpt>
      <trkpt lat="36.937670" lon="-113.825510">
        <ele>644.317</ele>
        <time>2018-12-28T08:49:02Z</time>
      </trkpt>
      <trkpt lat="36.937770" lon="-113.825450">
        <ele>644.087</ele>
        <time>2018-12-28T08:49:22Z</time>
      </trkpt>
      <trkpt lat="36.937870" lon="-113.825390">
        <ele>643.115</ele>
        <time>2018-12-28T08:49:42Z</time>
      </trkpt>
      <trkpt lat="36.937990" lon="-113.825320">
        <ele>642.408</ele>
        <time>2018-12-28T08:50:02Z</time>
      </trkpt>
      <trkpt lat="36.938070" lon="-113.825260">
        <ele>641.954</ele>
        <time>2018-12-28T08:50:22Z</time>
      </trkpt>
      <trkpt lat="36.938170" lon="-113.825190">
        <ele>641.332</ele>
        <time>2018-12-28T08:50:42Z</time>
      </trkpt>
      <trkpt lat="36.938270" lon="-113.825120">
        <ele>640.977</ele>
        <time>2018-12-28T08:51:02Z</time>
      </trkpt>
      <trkpt lat="36.938370" lon="-113.825050">
        <ele>640.568</ele>
        <time>2018-12-28T08:51:22Z</time>
      </trkpt>
      <trkpt lat="36.938450" lon="-113.824970">
        <ele>639.962</ele>
        <time>2018-12-28T08:51:42Z</time>
      </trkpt>
      <trkpt lat="36.938550" lon="-113.824890">
        <ele>639.346</ele>
        <time>2018-12-28T08:52:02Z</time>
      </trkpt>
      <trkpt lat="36.938640" lon="-113.824810">
        <ele>638.855</ele>
        <time>2018-12-28T08:52:22Z</time>
      </trkpt>
      <trkpt lat="36.938720" lon="-113.824730">
        <ele>638.490</ele>
        <time>2018-12-28T08:52:42Z</time>
      </trkpt>
      <trkpt lat="36.938810" lon="-113.824640">
        <ele>637.796</ele>
        <time>2018-12-28T08:53:02Z</time>
      </trkpt>
      <trkpt lat="36.938890" lon="-113.824560">
        <ele>637.031</ele>
        <time>2018-12-28T08:53:22Z</time>
      </trkpt>
      <trkpt lat="36.938970" lon="-113.824460">
        <ele>636.524</ele>
        <time>2018-12-28T08:53:42Z</time>
      </trkpt>
      <trkpt lat="36.939050" lon="-113.824370">
        <ele>636.308</ele>
        <time>2018-12-28T08:54:02Z</time>
      </trkpt>
      <trkpt lat="36.939120" lon="-113.824270">
        <ele>636.382</ele>
        <time>2018-12-28T08:54:22Z</time>
      </trkpt>
      <trkpt lat="36.939200" lon="-113.824170">
        <ele>636.570</ele>
        <time>2018-12-28T08:54:42Z</time>
      </trkpt>
      <trkpt lat="36.939270" lon="-113.824070">
        <ele>636.665</ele>
        <time>2018-12-28T08:55:02Z</time>
      </trkpt>
      <trkpt lat="36.939340" lon="-113.823960">
        <ele>636.976</ele>
        <time>2018-12-28T08:55:22Z</time>
      </trkpt>
      <trkpt lat="36.939410" lon="-113.823850">
        <ele>637.310</ele>
        <time>2018-12-28T08:55:42Z</time>
      </trkpt>
      <trkpt lat="36.939480" lon="-113.823740">
        <ele>637.574</ele>
        <time>2018-12-28T08:56:02Z</time>
      </trkpt>
      <trkpt lat="36.939540" lon="-113.823630">
        <ele>637.733</ele>
        <time>2018-12-28T08:56:22Z</time>
      </trkpt>
      <trkpt lat="36.939600" lon="-113.823520">
        <ele>638.028</ele>
        <time>2018-12-28T08:56:42Z</time>
      </trkpt>
      <trkpt lat="36.939720" lon="-113.823290">
        <ele>638.755</ele>
        <time>2018-12-28T08:57:02Z</time>
      </trkpt>
      <trkpt lat="36.939820" lon="-113.823060">
        <ele>639.207</ele>
        <time>2018-12-28T08:57:22Z</time>
      </trkpt>
      <trkpt lat="36.939880" lon="-113.822930">
        <ele>639.517</ele>
        <time>2018-12-28T08:57:42Z</time>
      </trkpt>
      <trkpt lat="36.939930" lon="-113.822810">
        <ele>639.808</ele>
        <time>2018-12-28T08:58:02Z</time>
      </trkpt>
      <trkpt lat="36.939970" lon="-113.822680">
        <ele>640.298</ele>
        <time>2018-12-28T08:58:22Z</time>
      </trkpt>
      <trkpt lat="36.940020" lon="-113.822550">
        <ele>640.886</ele>
        <time>2018-12-28T08:58:42Z</time>
      </trkpt>
      <trkpt lat="36.940060" lon="-113.822430">
        <ele>641.221</ele>
        <time>2018-12-28T08:59:02Z</time>
      </trkpt>
      <trkpt lat="36.940090" lon="-113.822300">
        <ele>641.442</ele>
        <time>2018-12-28T08:59:22Z</time>
      </trkpt>
      <trkpt lat="36.940130" lon="-113.822170">
        <ele>641.566</ele>
        <time>2018-12-28T08:59:42Z</time>
      </trkpt>
      <trkpt lat="36.940160" lon="-113.822040">
        <ele>641.510</ele>
        <time>2018-12-28T09:00:02Z</time>
      </trkpt>
      <trkpt lat="36.940190" lon="-113.821910">
        <ele>641.649</ele>
        <time>2018-12-28T09:00:22Z</time>
      </trkpt>
      <trkpt lat="36.940220" lon="-113.821780">
        <ele>641.894</ele>
        <time>2018-12-28T09:00:42Z</time>
      </trkpt>
      <trkpt lat="36.940250" lon="-113.821650">
        <ele>642.086</ele>
        <time>2018-12-28T09:01:02Z</time>
      </trkpt>
      <trkpt lat="36.940280" lon="-113.821520">
        <ele>642.360</ele>
        <time>2018-12-28T09:01:22Z</time>
      </trkpt>
      <trkpt lat="36.940320" lon="-113.821290">
        <ele>642.426</ele>
        <time>2018-12-28T09:01:42Z</time>
      </trkpt>
      <trkpt lat="36.940360" lon="-113.821120">
        <ele>642.808</ele>
        <time>2018-12-28T09:02:02Z</time>
      </trkpt>
      <trkpt lat="36.940390" lon="-113.820990">
        <ele>643.021</ele>
        <time>2018-12-28T09:02:22Z</time>
      </trkpt>
      <trkpt lat="36.940410" lon="-113.820860">
        <ele>642.999</ele>
        <time>2018-12-28T09:02:42Z</time>
      </trkpt>
      <trkpt lat="36.940440" lon="-113.820730">
        <ele>643.624</ele>
        <time>2018-12-28T09:03:02Z</time>
      </trkpt>
      <trkpt lat="36.940470" lon="-113.820600">
        <ele>644.275</ele>
        <time>2018-12-28T09:03:22Z</time>
      </trkpt>
      <trkpt lat="36.940490" lon="-113.820470">
        <ele>644.119</ele>
        <time>2018-12-28T09:03:42Z</time>
      </trkpt>
      <trkpt lat="36.940520" lon="-113.820330">
        <ele>644.243</ele>
        <time>2018-12-28T09:04:02Z</time>
      </trkpt>
      <trkpt lat="36.940550" lon="-113.820200">
        <ele>644.022</ele>
        <time>2018-12-28T09:04:22Z</time>
      </trkpt>
      <trkpt lat="36.940570" lon="-113.820070">
        <ele>643.567</ele>
        <time>2018-12-28T09:04:42Z</time>
      </trkpt>
      <trkpt lat="36.940600" lon="-113.819940">
        <ele>643.497</ele>
        <time>2018-12-28T09:05:02Z</time>
      </trkpt>
      <trkpt lat="36.940630" lon="-113.819810">
        <ele>643.423</ele>
        <time>2018-12-28T09:05:22Z</time>
      </trkpt>
      <trkpt lat="36.940650" lon="-113.819680">
        <ele>643.325</ele>
        <time>2018-12-28T09:05:42Z</time>
      </trkpt>
      <trkpt lat="36.940700" lon="-113.819450">
        <ele>644.908</ele>
        <time>2018-12-28T09:06:02Z</time>
      </trkpt>
      <trkpt lat="36.940730" lon="-113.819310">
        <ele>646.792</ele>
        <time>2018-12-28T09:06:22Z</time>
      </trkpt>
      <trkpt lat="36.940760" lon="-113.819170">
        <ele>648.770</ele>
        <time>2018-12-28T09:06:42Z</time>
      </trkpt>
      <trkpt lat="36.940780" lon="-113.819040">
        <ele>650.065</ele>
        <time>2018-12-28T09:07:02Z</time>
      </trkpt>
      <trkpt lat="36.940810" lon="-113.818910">
        <ele>649.926</ele>
        <time>2018-12-28T09:07:22Z</time>
      </trkpt>
      <trkpt lat="36.940830" lon="-113.818780">
        <ele>649.410</ele>
        <time>2018-12-28T09:07:42Z</time>
      </trkpt>
      <trkpt lat="36.940860" lon="-113.818650">
        <ele>649.444</ele>
        <time>2018-12-28T09:08:02Z</time>
      </trkpt>
      <trkpt lat="36.940890" lon="-113.818520">
        <ele>649.433</ele>
        <time>2018-12-28T09:08:22Z</time>
      </trkpt>
      <trkpt lat="36.940920" lon="-113.818380">
        <ele>649.578</ele>
        <time>2018-12-28T09:08:42Z</time>
      </trkpt>
      <trkpt lat="36.940940" lon="-113.818250">
        <ele>649.448</ele>
        <time>2018-12-28T09:09:02Z</time>
      </trkpt>
      <trkpt lat="36.940970" lon="-113.818130">
        <ele>649.761</ele>
        <time>2018-12-28T09:09:22Z</time>
      </trkpt>
      <trkpt lat="36.941000" lon="-113.817990">
        <ele>650.117</ele>
        <time>2018-12-28T09:09:42Z</time>
      </trkpt>
      <trkpt lat="36.941020" lon="-113.817860">
        <ele>650.008</ele>
        <time>2018-12-28T09:10:02Z</time>
      </trkpt>
      <trkpt lat="36.941050" lon="-113.817730">
        <ele>649.827</ele>
        <time>2018-12-28T09:10:22Z</time>
      </trkpt>
      <trkpt lat="36.941080" lon="-113.817600">
        <ele>649.685</ele>
        <time>2018-12-28T09:10:42Z</time>
      </trkpt>
      <trkpt lat="36.941100" lon="-113.817460">
        <ele>649.470</ele>
        <time>2018-12-28T09:11:02Z</time>
      </trkpt>
      <trkpt lat="36.941130" lon="-113.817340">
        <ele>649.451</ele>
        <time>2018-12-28T09:11:22Z</time>
      </trkpt>
      <trkpt lat="36.941160" lon="-113.817200">
        <ele>649.545</ele>
        <time>2018-12-28T09:11:42Z</time>
      </trkpt>
      <trkpt lat="36.941190" lon="-113.817070">
        <ele>649.659</ele>
        <time>2018-12-28T09:12:02Z</time>
      </trkpt>
      <trkpt lat="36.941220" lon="-113.816920">
        <ele>650.178</ele>
        <time>2018-12-28T09:12:22Z</time>
      </trkpt>
      <trkpt lat="36.941250" lon="-113.816790">
        <ele>650.673</ele>
        <time>2018-12-28T09:12:42Z</time>
      </trkpt>
      <trkpt lat="36.941270" lon="-113.816650">
        <ele>651.148</ele>
        <time>2018-12-28T09:13:02Z</time>
      </trkpt>
      <trkpt lat="36.941300" lon="-113.816530">
        <ele>652.061</ele>
        <time>2018-12-28T09:13:22Z</time>
      </trkpt>
      <trkpt lat="36.941330" lon="-113.816390">
        <ele>652.617</ele>
        <time>2018-12-28T09:13:42Z</time>
      </trkpt>
      <trkpt lat="36.941350" lon="-113.816280">
        <ele>652.908</ele>
        <time>2018-12-28T09:14:02Z</time>
      </trkpt>
      <trkpt lat="36.941380" lon="-113.816150">
        <ele>653.387</ele>
        <time>2018-12-28T09:14:22Z</time>
      </trkpt>
      <trkpt lat="36.941410" lon="-113.816030">
        <ele>653.685</ele>
        <time>2018-12-28T09:14:42Z</time>
      </trkpt>
      <trkpt lat="36.941440" lon="-113.815900">
        <ele>653.950</ele>
        <time>2018-12-28T09:15:02Z</time>
      </trkpt>
      <trkpt lat="36.941480" lon="-113.815770">
        <ele>654.211</ele>
        <time>2018-12-28T09:15:22Z</time>
      </trkpt>
      <trkpt lat="36.941520" lon="-113.815640">
        <ele>654.515</ele>
        <time>2018-12-28T09:15:42Z</time>
      </trkpt>
      <trkpt lat="36.941560" lon="-113.815520">
        <ele>654.939</ele>
        <time>2018-12-28T09:16:02Z</time>
      </trkpt>
      <trkpt lat="36.941610" lon="-113.815400">
        <ele>654.888</ele>
        <time>2018-12-28T09:16:22Z</time>
      </trkpt>
      <trkpt lat="36.941650" lon="-113.815270">
        <ele>654.973</ele>
        <time>2018-12-28T09:16:42Z</time>
      </trkpt>
      <trkpt lat="36.941710" lon="-113.815130">
        <ele>655.296</ele>
        <time>2018-12-28T09:17:02Z</time>
      </trkpt>
      <trkpt lat="36.941770" lon="-113.815000">
        <ele>655.631</ele>
        <time>2018-12-28T09:17:22Z</time>
      </trkpt>
      <trkpt lat="36.941820" lon="-113.814890">
        <ele>655.824</ele>
        <time>2018-12-28T09:17:42Z</time>
      </trkpt>
      <trkpt lat="36.941860" lon="-113.814790">
        <ele>655.708</ele>
        <time>2018-12-28T09:18:02Z</time>
      </trkpt>
      <trkpt lat="36.941920" lon="-113.814690">
        <ele>656.092</ele>
        <time>2018-12-28T09:18:22Z</time>
      </trkpt>
      <trkpt lat="36.941980" lon="-113.814570">
        <ele>656.190</ele>
        <time>2018-12-28T09:18:42Z</time>
      </trkpt>
      <trkpt lat="36.942040" lon="-113.814460">
        <ele>656.265</ele>
        <time>2018-12-28T09:19:02Z</time>
      </trkpt>
      <trkpt lat="36.942110" lon="-113.814350">
        <ele>656.376</ele>
        <time>2018-12-28T09:19:22Z</time>
      </trkpt>
      <trkpt lat="36.942180" lon="-113.814250">
        <ele>656.450</ele>
        <time>2018-12-28T09:19:42Z</time>
      </trkpt>
      <trkpt lat="36.942250" lon="-113.814150">
        <ele>656.664</ele>
        <time>2018-12-28T09:20:02Z</time>
      </trkpt>
      <trkpt lat="36.942410" lon="-113.813920">
        <ele>656.713</ele>
        <time>2018-12-28T09:20:22Z</time>
      </trkpt>
      <trkpt lat="36.942630" lon="-113.813670">
        <ele>656.948</ele>
        <time>2018-12-28T09:20:42Z</time>
      </trkpt>
      <trkpt lat="36.942730" lon="-113.813560">
        <ele>656.981</ele>
        <time>2018-12-28T09:21:02Z</time>
      </trkpt>
      <trkpt lat="36.942810" lon="-113.813470">
        <ele>656.961</ele>
        <time>2018-12-28T09:21:22Z</time>
      </trkpt>
      <trkpt lat="36.942890" lon="-113.813380">
        <ele>656.617</ele>
        <time>2018-12-28T09:21:42Z</time>
      </trkpt>
      <trkpt lat="36.942980" lon="-113.813290">
        <ele>656.508</ele>
        <time>2018-12-28T09:22:02Z</time>
      </trkpt>
      <trkpt lat="36.943140" lon="-113.813120">
        <ele>655.641</ele>
        <time>2018-12-28T09:22:22Z</time>
      </trkpt>
      <trkpt lat="36.943460" lon="-113.812780">
        <ele>652.489</ele>
        <time>2018-12-28T09:22:42Z</time>
      </trkpt>
      <trkpt lat="36.943650" lon="-113.812590">
        <ele>650.934</ele>
        <time>2018-12-28T09:23:02Z</time>
      </trkpt>
      <trkpt lat="36.943800" lon="-113.812430">
        <ele>650.115</ele>
        <time>2018-12-28T09:23:22Z</time>
      </trkpt>
      <trkpt lat="36.943970" lon="-113.812250">
        <ele>649.889</ele>
        <time>2018-12-28T09:23:42Z</time>
      </trkpt>
      <trkpt lat="36.944070" lon="-113.812150">
        <ele>650.213</ele>
        <time>2018-12-28T09:24:02Z</time>
      </trkpt>
      <trkpt lat="36.944150" lon="-113.812060">
        <ele>651.082</ele>
        <time>2018-12-28T09:24:22Z</time>
      </trkpt>
      <trkpt lat="36.944230" lon="-113.811970">
        <ele>651.787</ele>
        <time>2018-12-28T09:24:42Z</time>
      </trkpt>
      <trkpt lat="36.944390" lon="-113.811790">
        <ele>653.611</ele>
        <time>2018-12-28T09:25:02Z</time>
      </trkpt>
      <trkpt lat="36.944550" lon="-113.811620">
        <ele>654.221</ele>
        <time>2018-12-28T09:25:22Z</time>
      </trkpt>
      <trkpt lat="36.944700" lon="-113.811450">
        <ele>654.003</ele>
        <time>2018-12-28T09:25:42Z</time>
      </trkpt>
      <trkpt lat="36.944800" lon="-113.811340">
        <ele>653.808</ele>
        <time>2018-12-28T09:26:02Z</time>
      </trkpt>
      <trkpt lat="36.944890" lon="-113.811250">
        <ele>653.874</ele>
        <time>2018-12-28T09:26:22Z</time>
      </trkpt>
      <trkpt lat="36.944950" lon="-113.811170">
        <ele>653.732</ele>
        <time>2018-12-28T09:26:42Z</time>
      </trkpt>
      <trkpt lat="36.945030" lon="-113.811080">
        <ele>653.897</ele>
        <time>2018-12-28T09:27:02Z</time>
      </trkpt>
      <trkpt lat="36.945110" lon="-113.810990">
        <ele>653.878</ele>
        <time>2018-12-28T09:27:22Z</time>
      </trkpt>
      <trkpt lat="36.945180" lon="-113.810880">
        <ele>653.672</ele>
        <time>2018-12-28T09:27:42Z</time>
      </trkpt>
      <trkpt lat="36.945260" lon="-113.810780">
        <ele>653.636</ele>
        <time>2018-12-28T09:28:02Z</time>
      </trkpt>
      <trkpt lat="36.945340" lon="-113.810670">
        <ele>653.435</ele>
        <time>2018-12-28T09:28:22Z</time>
      </trkpt>
      <trkpt lat="36.945410" lon="-113.810560">
        <ele>653.390</ele>
        <time>2018-12-28T09:28:42Z</time>
      </trkpt>
      <trkpt lat="36.945470" lon="-113.810460">
        <ele>653.182</ele>
        <time>2018-12-28T09:29:02Z</time>
      </trkpt>
      <trkpt lat="36.945540" lon="-113.810340">
        <ele>653.343</ele>
        <time>2018-12-28T09:29:22Z</time>
      </trkpt>
      <trkpt lat="36.945600" lon="-113.810230">
        <ele>654.117</ele>
        <time>2018-12-28T09:29:42Z</time>
      </trkpt>
      <trkpt lat="36.945660" lon="-113.810110">
        <ele>655.708</ele>
        <time>2018-12-28T09:30:02Z</time>
      </trkpt>
      <trkpt lat="36.945720" lon="-113.809990">
        <ele>657.541</ele>
        <time>2018-12-28T09:30:22Z</time>
      </trkpt>
      <trkpt lat="36.945770" lon="-113.809870">
        <ele>658.269</ele>
        <time>2018-12-28T09:30:42Z</time>
      </trkpt>
      <trkpt lat="36.945820" lon="-113.809760">
        <ele>657.324</ele>
        <time>2018-12-28T09:31:02Z</time>
      </trkpt>
      <trkpt lat="36.945870" lon="-113.809630">
        <ele>657.045</ele>
        <time>2018-12-28T09:31:22Z</time>
      </trkpt>
      <trkpt lat="36.945920" lon="-113.809510">
        <ele>657.699</ele>
        <time>2018-12-28T09:31:42Z</time>
      </trkpt>
      <trkpt lat="36.945960" lon="-113.809380">
        <ele>658.633</ele>
        <time>2018-12-28T09:32:02Z</time>
      </trkpt>
      <trkpt lat="36.946010" lon="-113.809260">
        <ele>658.782</ele>
        <time>2018-12-28T09:32:22Z</time>
      </trkpt>
      <trkpt lat="36.946050" lon="-113.809130">
        <ele>658.237</ele>
        <time>2018-12-28T09:32:42Z</time>
      </trkpt>
      <trkpt lat="36.946080" lon="-113.809010">
        <ele>657.921</ele>
        <time>2018-12-28T09:33:02Z</time>
      </trkpt>
      <trkpt lat="36.946120" lon="-113.808880">
        <ele>657.841</ele>
        <time>2018-12-28T09:33:22Z</time>
      </trkpt>
      <trkpt lat="36.946160" lon="-113.808750">
        <ele>658.005</ele>
        <time>2018-12-28T09:33:42Z</time>
      </trkpt>
      <trkpt lat="36.946200" lon="-113.808620">
        <ele>658.308</ele>
        <time>2018-12-28T09:34:02Z</time>
      </trkpt>
      <trkpt lat="36.946230" lon="-113.808500">
        <ele>658.965</ele>
        <time>2018-12-28T09:34:22Z</time>
      </trkpt>
      <trkpt lat="36.946300" lon="-113.808270">
        <ele>659.293</ele>
        <time>2018-12-28T09:34:42Z</time>
      </trkpt>
      <trkpt lat="36.946340" lon="-113.808110">
        <ele>659.128</ele>
        <time>2018-12-28T09:35:02Z</time>
      </trkpt>
      <trkpt lat="36.946380" lon="-113.807990">
        <ele>659.539</ele>
        <time>2018-12-28T09:35:22Z</time>
      </trkpt>
      <trkpt lat="36.946450" lon="-113.807760">
        <ele>660.493</ele>
        <time>2018-12-28T09:35:42Z</time>
      </trkpt>
      <trkpt lat="36.946500" lon="-113.807610">
        <ele>661.347</ele>
        <time>2018-12-28T09:36:02Z</time>
      </trkpt>
      <trkpt lat="36.946570" lon="-113.807370">
        <ele>662.266</ele>
        <time>2018-12-28T09:36:22Z</time>
      </trkpt>
      <trkpt lat="36.946640" lon="-113.807130">
        <ele>662.641</ele>
        <time>2018-12-28T09:36:42Z</time>
      </trkpt>
      <trkpt lat="36.946690" lon="-113.806990">
        <ele>663.048</ele>
        <time>2018-12-28T09:37:02Z</time>
      </trkpt>
      <trkpt lat="36.946740" lon="-113.806850">
        <ele>663.461</ele>
        <time>2018-12-28T09:37:22Z</time>
      </trkpt>
      <trkpt lat="36.946780" lon="-113.806730">
        <ele>664.117</ele>
        <time>2018-12-28T09:37:42Z</time>
      </trkpt>
      <trkpt lat="36.946830" lon="-113.806600">
        <ele>665.108</ele>
        <time>2018-12-28T09:38:02Z</time>
      </trkpt>
      <trkpt lat="36.946880" lon="-113.806490">
        <ele>665.957</ele>
        <time>2018-12-28T09:38:22Z</time>
      </trkpt>
      <trkpt lat="36.946930" lon="-113.806370">
        <ele>667.125</ele>
        <time>2018-12-28T09:38:42Z</time>
      </trkpt>
      <trkpt lat="36.946990" lon="-113.806250">
        <ele>667.240</ele>
        <time>2018-12-28T09:39:02Z</time>
      </trkpt>
      <trkpt lat="36.947050" lon="-113.806140">
        <ele>667.941</ele>
        <time>2018-12-28T09:39:22Z</time>
      </trkpt>
      <trkpt lat="36.947110" lon="-113.806030">
        <ele>668.085</ele>
        <time>2018-12-28T09:39:42Z</time>
      </trkpt>
      <trkpt lat="36.947170" lon="-113.805920">
        <ele>669.689</ele>
        <time>2018-12-28T09:40:02Z</time>
      </trkpt>
      <trkpt lat="36.947260" lon="-113.805760">
        <ele>670.568</ele>
        <time>2018-12-28T09:40:22Z</time>
      </trkpt>
      <trkpt lat="36.947350" lon="-113.805610">
        <ele>670.223</ele>
        <time>2018-12-28T09:40:42Z</time>
      </trkpt>
      <trkpt lat="36.947440" lon="-113.805490">
        <ele>674.527</ele>
        <time>2018-12-28T09:41:02Z</time>
      </trkpt>
      <trkpt lat="36.947510" lon="-113.805390">
        <ele>676.568</ele>
        <time>2018-12-28T09:41:22Z</time>
      </trkpt>
      <trkpt lat="36.947580" lon="-113.805290">
        <ele>678.214</ele>
        <time>2018-12-28T09:41:42Z</time>
      </trkpt>
      <trkpt lat="36.947660" lon="-113.805200">
        <ele>676.408</ele>
        <time>2018-12-28T09:42:02Z</time>
      </trkpt>
      <trkpt lat="36.947740" lon="-113.805100">
        <ele>679.385</ele>
        <time>2018-12-28T09:42:22Z</time>
      </trkpt>
      <trkpt lat="36.947820" lon="-113.805010">
        <ele>681.063</ele>
        <time>2018-12-28T09:42:42Z</time>
      </trkpt>
      <trkpt lat="36.947900" lon="-113.804910">
        <ele>678.618</ele>
        <time>2018-12-28T09:43:02Z</time>
      </trkpt>
      <trkpt lat="36.947980" lon="-113.804830">
        <ele>679.179</ele>
        <time>2018-12-28T09:43:22Z</time>
      </trkpt>
      <trkpt lat="36.948220" lon="-113.804550">
        <ele>681.733</ele>
        <time>2018-12-28T09:43:42Z</time>
      </trkpt>
      <trkpt lat="36.948460" lon="-113.804280">
        <ele>679.387</ele>
        <time>2018-12-28T09:44:02Z</time>
      </trkpt>
      <trkpt lat="36.948630" lon="-113.804090">
        <ele>677.276</ele>
        <time>2018-12-28T09:44:22Z</time>
      </trkpt>
      <trkpt lat="36.948790" lon="-113.803920">
        <ele>674.851</ele>
        <time>2018-12-28T09:44:42Z</time>
      </trkpt>
      <trkpt lat="36.949030" lon="-113.803640">
        <ele>673.954</ele>
        <time>2018-12-28T09:45:02Z</time>
      </trkpt>
      <trkpt lat="36.949190" lon="-113.803460">
        <ele>676.056</ele>
        <time>2018-12-28T09:45:22Z</time>
      </trkpt>
      <trkpt lat="36.949280" lon="-113.803370">
        <ele>677.111</ele>
        <time>2018-12-28T09:45:42Z</time>
      </trkpt>
      <trkpt lat="36.949360" lon="-113.803280">
        <ele>677.908</ele>
        <time>2018-12-28T09:46:02Z</time>
      </trkpt>
      <trkpt lat="36.949440" lon="-113.803190">
        <ele>678.488</ele>
        <time>2018-12-28T09:46:22Z</time>
      </trkpt>
      <trkpt lat="36.949520" lon="-113.803100">
        <ele>679.966</ele>
        <time>2018-12-28T09:46:42Z</time>
      </trkpt>
      <trkpt lat="36.949680" lon="-113.802910">
        <ele>679.951</ele>
        <time>2018-12-28T09:47:02Z</time>
      </trkpt>
      <trkpt lat="36.949830" lon="-113.802740">
        <ele>677.822</ele>
        <time>2018-12-28T09:47:22Z</time>
      </trkpt>
      <trkpt lat="36.949930" lon="-113.802640">
        <ele>676.426</ele>
        <time>2018-12-28T09:47:42Z</time>
      </trkpt>
      <trkpt lat="36.950090" lon="-113.802460">
        <ele>674.130</ele>
        <time>2018-12-28T09:48:02Z</time>
      </trkpt>
      <trkpt lat="36.950250" lon="-113.802270">
        <ele>671.739</ele>
        <time>2018-12-28T09:48:22Z</time>
      </trkpt>
      <trkpt lat="36.950410" lon="-113.802090">
        <ele>672.094</ele>
        <time>2018-12-28T09:48:42Z</time>
      </trkpt>
      <trkpt lat="36.950490" lon="-113.802000">
        <ele>671.299</ele>
        <time>2018-12-28T09:49:02Z</time>
      </trkpt>
      <trkpt lat="36.950570" lon="-113.801900">
        <ele>670.707</ele>
        <time>2018-12-28T09:49:22Z</time>
      </trkpt>
      <trkpt lat="36.950650" lon="-113.801810">
        <ele>671.027</ele>
        <time>2018-12-28T09:49:42Z</time>
      </trkpt>
      <trkpt lat="36.950730" lon="-113.801720">
        <ele>670.808</ele>
        <time>2018-12-28T09:50:02Z</time>
      </trkpt>
      <trkpt lat="36.950780" lon="-113.801670">
        <ele>670.652</ele>
        <time>2018-12-28T09:50:22Z</time>
      </trkpt>
      <trkpt lat="36.950820" lon="-113.801630">
        <ele>670.670</ele>
        <time>2018-12-28T09:50:42Z</time>
      </trkpt>
      <trkpt lat="36.950910" lon="-113.801530">
        <ele>670.915</ele>
        <time>2018-12-28T09:51:02Z</time>
      </trkpt>
      <trkpt lat="36.951110" lon="-113.801320">
        <ele>671.436</ele>
        <time>2018-12-28T09:51:22Z</time>
      </trkpt>
      <trkpt lat="36.951420" lon="-113.800970">
        <ele>671.660</ele>
        <time>2018-12-28T09:51:42Z</time>
      </trkpt>
      <trkpt lat="36.951920" lon="-113.800410">
        <ele>671.914</ele>
        <time>2018-12-28T09:52:02Z</time>
      </trkpt>
      <trkpt lat="36.952100" lon="-113.800200">
        <ele>672.563</ele>
        <time>2018-12-28T09:52:22Z</time>
      </trkpt>
      <trkpt lat="36.952330" lon="-113.799940">
        <ele>673.158</ele>
        <time>2018-12-28T09:52:42Z</time>
      </trkpt>
      <trkpt lat="36.952560" lon="-113.799680">
        <ele>673.527</ele>
        <time>2018-12-28T09:53:02Z</time>
      </trkpt>
      <trkpt lat="36.952720" lon="-113.799480">
        <ele>673.968</ele>
        <time>2018-12-28T09:53:22Z</time>
      </trkpt>
      <trkpt lat="36.952890" lon="-113.799300">
        <ele>674.014</ele>
        <time>2018-12-28T09:53:42Z</time>
      </trkpt>
      <trkpt lat="36.953040" lon="-113.799100">
        <ele>673.708</ele>
        <time>2018-12-28T09:54:02Z</time>
      </trkpt>
      <trkpt lat="36.953110" lon="-113.799010">
        <ele>673.725</ele>
        <time>2018-12-28T09:54:22Z</time>
      </trkpt>
      <trkpt lat="36.953190" lon="-113.798910">
        <ele>674.023</ele>
        <time>2018-12-28T09:54:42Z</time>
      </trkpt>
      <trkpt lat="36.953260" lon="-113.798810">
        <ele>674.678</ele>
        <time>2018-12-28T09:55:02Z</time>
      </trkpt>
      <trkpt lat="36.953340" lon="-113.798700">
        <ele>675.869</ele>
        <time>2018-12-28T09:55:22Z</time>
      </trkpt>
      <trkpt lat="36.953450" lon="-113.798540">
        <ele>677.463</ele>
        <time>2018-12-28T09:55:42Z</time>
      </trkpt>
      <trkpt lat="36.953540" lon="-113.798400">
        <ele>678.457</ele>
        <time>2018-12-28T09:56:02Z</time>
      </trkpt>
      <trkpt lat="36.953680" lon="-113.798180">
        <ele>679.566</ele>
        <time>2018-12-28T09:56:22Z</time>
      </trkpt>
      <trkpt lat="36.953750" lon="-113.798070">
        <ele>679.981</ele>
        <time>2018-12-28T09:56:42Z</time>
      </trkpt>
      <trkpt lat="36.953810" lon="-113.797960">
        <ele>680.414</ele>
        <time>2018-12-28T09:57:02Z</time>
      </trkpt>
      <trkpt lat="36.953940" lon="-113.797740">
        <ele>681.354</ele>
        <time>2018-12-28T09:57:22Z</time>
      </trkpt>
      <trkpt lat="36.954030" lon="-113.797570">
        <ele>681.609</ele>
        <time>2018-12-28T09:57:42Z</time>
      </trkpt>
      <trkpt lat="36.954100" lon="-113.797430">
        <ele>682.208</ele>
        <time>2018-12-28T09:58:02Z</time>
      </trkpt>
      <trkpt lat="36.954170" lon="-113.797310">
        <ele>682.414</ele>
        <time>2018-12-28T09:58:22Z</time>
      </trkpt>
      <trkpt lat="36.954240" lon="-113.797170">
        <ele>682.482</ele>
        <time>2018-12-28T09:58:42Z</time>
      </trkpt>
      <trkpt lat="36.954400" lon="-113.796840">
        <ele>681.777</ele>
        <time>2018-12-28T09:59:02Z</time>
      </trkpt>
      <trkpt lat="36.954510" lon="-113.796590">
        <ele>681.158</ele>
        <time>2018-12-28T09:59:22Z</time>
      </trkpt>
      <trkpt lat="36.954610" lon="-113.796360">
        <ele>680.652</ele>
        <time>2018-12-28T09:59:42Z</time>
      </trkpt>
      <trkpt lat="36.954680" lon="-113.796180">
        <ele>680.546</ele>
        <time>2018-12-28T10:00:02Z</time>
      </trkpt>
      <trkpt lat="36.954750" lon="-113.795980">
        <ele>680.375</ele>
        <time>2018-12-28T10:00:22Z</time>
      </trkpt>
      <trkpt lat="36.954880" lon="-113.795620">
        <ele>680.010</ele>
        <time>2018-12-28T10:00:42Z</time>
      </trkpt>
      <trkpt lat="36.955090" lon="-113.794990">
        <ele>679.725</ele>
        <time>2018-12-28T10:01:02Z</time>
      </trkpt>
      <trkpt lat="36.955330" lon="-113.794250">
        <ele>679.126</ele>
        <time>2018-12-28T10:01:22Z</time>
      </trkpt>
      <trkpt lat="36.955550" lon="-113.793590">
        <ele>678.308</ele>
        <time>2018-12-28T10:01:42Z</time>
      </trkpt>
      <trkpt lat="36.955780" lon="-113.792890">
        <ele>678.208</ele>
        <time>2018-12-28T10:02:02Z</time>
      </trkpt>
      <trkpt lat="36.955910" lon="-113.792490">
        <ele>678.615</ele>
        <time>2018-12-28T10:02:22Z</time>
      </trkpt>
      <trkpt lat="36.956040" lon="-113.792090">
        <ele>678.183</ele>
        <time>2018-12-28T10:02:42Z</time>
      </trkpt>
      <trkpt lat="36.956280" lon="-113.791390">
        <ele>674.518</ele>
        <time>2018-12-28T10:03:02Z</time>
      </trkpt>
      <trkpt lat="36.956410" lon="-113.790950">
        <ele>672.719</ele>
        <time>2018-12-28T10:03:22Z</time>
      </trkpt>
      <trkpt lat="36.956710" lon="-113.790040">
        <ele>676.763</ele>
        <time>2018-12-28T10:03:42Z</time>
      </trkpt>
      <trkpt lat="36.957110" lon="-113.788820">
        <ele>680.237</ele>
        <time>2018-12-28T10:04:02Z</time>
      </trkpt>
      <trkpt lat="36.957560" lon="-113.787470">
        <ele>686.176</ele>
        <time>2018-12-28T10:04:22Z</time>
      </trkpt>
      <trkpt lat="36.957590" lon="-113.787360">
        <ele>686.141</ele>
        <time>2018-12-28T10:04:42Z</time>
      </trkpt>
      <trkpt lat="36.957640" lon="-113.787240">
        <ele>687.298</ele>
        <time>2018-12-28T10:05:02Z</time>
      </trkpt>
      <trkpt lat="36.957680" lon="-113.787110">
        <ele>686.215</ele>
        <time>2018-12-28T10:05:22Z</time>
      </trkpt>
      <trkpt lat="36.957720" lon="-113.786990">
        <ele>686.126</ele>
        <time>2018-12-28T10:05:42Z</time>
      </trkpt>
      <trkpt lat="36.957770" lon="-113.786870">
        <ele>686.708</ele>
        <time>2018-12-28T10:06:02Z</time>
      </trkpt>
      <trkpt lat="36.957810" lon="-113.786760">
        <ele>687.362</ele>
        <time>2018-12-28T10:06:22Z</time>
      </trkpt>
      <trkpt lat="36.957860" lon="-113.786630">
        <ele>687.710</ele>
        <time>2018-12-28T10:06:42Z</time>
      </trkpt>
      <trkpt lat="36.957910" lon="-113.786520">
        <ele>688.225</ele>
        <time>2018-12-28T10:07:02Z</time>
      </trkpt>
      <trkpt lat="36.957970" lon="-113.786390">
        <ele>688.176</ele>
        <time>2018-12-28T10:07:22Z</time>
      </trkpt>
      <trkpt lat="36.958020" lon="-113.786270">
        <ele>687.870</ele>
        <time>2018-12-28T10:07:42Z</time>
      </trkpt>
      <trkpt lat="36.958070" lon="-113.786150">
        <ele>686.944</ele>
        <time>2018-12-28T10:08:02Z</time>
      </trkpt>
      <trkpt lat="36.958130" lon="-113.786030">
        <ele>686.433</ele>
        <time>2018-12-28T10:08:22Z</time>
      </trkpt>
      <trkpt lat="36.958190" lon="-113.785910">
        <ele>686.678</ele>
        <time>2018-12-28T10:08:42Z</time>
      </trkpt>
      <trkpt lat="36.958250" lon="-113.785790">
        <ele>686.943</ele>
        <time>2018-12-28T10:09:02Z</time>
      </trkpt>
      <trkpt lat="36.958300" lon="-113.785680">
        <ele>687.564</ele>
        <time>2018-12-28T10:09:22Z</time>
      </trkpt>
      <trkpt lat="36.958420" lon="-113.785470">
        <ele>692.310</ele>
        <time>2018-12-28T10:09:42Z</time>
      </trkpt>
      <trkpt lat="36.958550" lon="-113.785250">
        <ele>694.108</ele>
        <time>2018-12-28T10:10:02Z</time>
      </trkpt>
      <trkpt lat="36.958610" lon="-113.785130">
        <ele>693.637</ele>
        <time>2018-12-28T10:10:22Z</time>
      </trkpt>
      <trkpt lat="36.958680" lon="-113.785020">
        <ele>693.065</ele>
        <time>2018-12-28T10:10:42Z</time>
      </trkpt>
      <trkpt lat="36.958740" lon="-113.784900">
        <ele>695.140</ele>
        <time>2018-12-28T10:11:02Z</time>
      </trkpt>
      <trkpt lat="36.958800" lon="-113.784790">
        <ele>695.071</ele>
        <time>2018-12-28T10:11:22Z</time>
      </trkpt>
      <trkpt lat="36.958860" lon="-113.784680">
        <ele>694.585</ele>
        <time>2018-12-28T10:11:42Z</time>
      </trkpt>
      <trkpt lat="36.958920" lon="-113.784570">
        <ele>694.639</ele>
        <time>2018-12-28T10:12:02Z</time>
      </trkpt>
      <trkpt lat="36.958980" lon="-113.784450">
        <ele>694.758</ele>
        <time>2018-12-28T10:12:22Z</time>
      </trkpt>
      <trkpt lat="36.959040" lon="-113.784340">
        <ele>696.473</ele>
        <time>2018-12-28T10:12:42Z</time>
      </trkpt>
      <trkpt lat="36.959100" lon="-113.784220">
        <ele>695.822</ele>
        <time>2018-12-28T10:13:02Z</time>
      </trkpt>
      <trkpt lat="36.959160" lon="-113.784110">
        <ele>695.462</ele>
        <time>2018-12-28T10:13:22Z</time>
      </trkpt>
      <trkpt lat="36.959210" lon="-113.783990">
        <ele>695.208</ele>
        <time>2018-12-28T10:13:42Z</time>
      </trkpt>
      <trkpt lat="36.959320" lon="-113.783750">
        <ele>698.108</ele>
        <time>2018-12-28T10:14:02Z</time>
      </trkpt>
      <trkpt lat="36.959380" lon="-113.783630">
        <ele>699.955</ele>
        <time>2018-12-28T10:14:22Z</time>
      </trkpt>
      <trkpt lat="36.959420" lon="-113.783520">
        <ele>702.143</ele>
        <time>2018-12-28T10:14:42Z</time>
      </trkpt>
      <trkpt lat="36.959470" lon="-113.783410">
        <ele>704.338</ele>
        <time>2018-12-28T10:15:02Z</time>
      </trkpt>
      <trkpt lat="36.959510" lon="-113.783300">
        <ele>705.679</ele>
        <time>2018-12-28T10:15:22Z</time>
      </trkpt>
      <trkpt lat="36.959560" lon="-113.783160">
        <ele>707.643</ele>
        <time>2018-12-28T10:15:42Z</time>
      </trkpt>
      <trkpt lat="36.959590" lon="-113.783040">
        <ele>708.477</ele>
        <time>2018-12-28T10:16:02Z</time>
      </trkpt>
      <trkpt lat="36.959630" lon="-113.782910">
        <ele>708.386</ele>
        <time>2018-12-28T10:16:22Z</time>
      </trkpt>
      <trkpt lat="36.959660" lon="-113.782810">
        <ele>708.391</ele>
        <time>2018-12-28T10:16:42Z</time>
      </trkpt>
      <trkpt lat="36.959700" lon="-113.782640">
        <ele>708.567</ele>
        <time>2018-12-28T10:17:02Z</time>
      </trkpt>
      <trkpt lat="36.959730" lon="-113.782500">
        <ele>709.681</ele>
        <time>2018-12-28T10:17:22Z</time>
      </trkpt>
      <trkpt lat="36.959750" lon="-113.782370">
        <ele>710.419</ele>
        <time>2018-12-28T10:17:42Z</time>
      </trkpt>
      <trkpt lat="36.959780" lon="-113.782240">
        <ele>711.608</ele>
        <time>2018-12-28T10:18:02Z</time>
      </trkpt>
      <trkpt lat="36.959800" lon="-113.782110">
        <ele>712.689</ele>
        <time>2018-12-28T10:18:22Z</time>
      </trkpt>
      <trkpt lat="36.959820" lon="-113.781980">
        <ele>713.547</ele>
        <time>2018-12-28T10:18:42Z</time>
      </trkpt>
      <trkpt lat="36.959830" lon="-113.781860">
        <ele>714.562</ele>
        <time>2018-12-28T10:19:02Z</time>
      </trkpt>
      <trkpt lat="36.959840" lon="-113.781740">
        <ele>715.713</ele>
        <time>2018-12-28T10:19:22Z</time>
      </trkpt>
      <trkpt lat="36.959850" lon="-113.781610">
        <ele>717.117</ele>
        <time>2018-12-28T10:19:42Z</time>
      </trkpt>
      <trkpt lat="36.959860" lon="-113.781480">
        <ele>718.441</ele>
        <time>2018-12-28T10:20:02Z</time>
      </trkpt>
      <trkpt lat="36.959870" lon="-113.781330">
        <ele>719.650</ele>
        <time>2018-12-28T10:20:22Z</time>
      </trkpt>
      <trkpt lat="36.959880" lon="-113.781190">
        <ele>720.335</ele>
        <time>2018-12-28T10:20:42Z</time>
      </trkpt>
      <trkpt lat="36.959880" lon="-113.781060">
        <ele>720.584</ele>
        <time>2018-12-28T10:21:02Z</time>
      </trkpt>
      <trkpt lat="36.959880" lon="-113.780920">
        <ele>720.807</ele>
        <time>2018-12-28T10:21:22Z</time>
      </trkpt>
      <trkpt lat="36.959880" lon="-113.780780">
        <ele>721.417</ele>
        <time>2018-12-28T10:21:42Z</time>
      </trkpt>
      <trkpt lat="36.959880" lon="-113.780640">
        <ele>721.908</ele>
        <time>2018-12-28T10:22:02Z</time>
      </trkpt>
      <trkpt lat="36.959880" lon="-113.780500">
        <ele>722.481</ele>
        <time>2018-12-28T10:22:22Z</time>
      </trkpt>
      <trkpt lat="36.959880" lon="-113.779950">
        <ele>722.039</ele>
        <time>2018-12-28T10:22:42Z</time>
      </trkpt>
      <trkpt lat="36.959890" lon="-113.779810">
        <ele>722.234</ele>
        <time>2018-12-28T10:23:02Z</time>
      </trkpt>
      <trkpt lat="36.959890" lon="-113.779410">
        <ele>722.115</ele>
        <time>2018-12-28T10:23:22Z</time>
      </trkpt>
      <trkpt lat="36.959890" lon="-113.779120">
        <ele>722.159</ele>
        <time>2018-12-28T10:23:42Z</time>
      </trkpt>
      <trkpt lat="36.959890" lon="-113.778980">
        <ele>722.183</ele>
        <time>2018-12-28T10:24:02Z</time>
      </trkpt>
      <trkpt lat="36.959890" lon="-113.778840">
        <ele>722.232</ele>
        <time>2018-12-28T10:24:22Z</time>
      </trkpt>
      <trkpt lat="36.959890" lon="-113.778710">
        <ele>722.787</ele>
        <time>2018-12-28T10:24:42Z</time>
      </trkpt>
      <trkpt lat="36.959890" lon="-113.778580">
        <ele>723.921</ele>
        <time>2018-12-28T10:25:02Z</time>
      </trkpt>
      <trkpt lat="36.959890" lon="-113.778320">
        <ele>728.741</ele>
        <time>2018-12-28T10:25:22Z</time>
      </trkpt>
      <trkpt lat="36.959890" lon="-113.777800">
        <ele>734.505</ele>
        <time>2018-12-28T10:25:42Z</time>
      </trkpt>
      <trkpt lat="36.959890" lon="-113.777660">
        <ele>735.108</ele>
        <time>2018-12-28T10:26:02Z</time>
      </trkpt>
      <trkpt lat="36.959900" lon="-113.777240">
        <ele>734.475</ele>
        <time>2018-12-28T10:26:22Z</time>
      </trkpt>
      <trkpt lat="36.959900" lon="-113.776960">
        <ele>733.433</ele>
        <time>2018-12-28T10:26:42Z</time>
      </trkpt>
      <trkpt lat="36.959900" lon="-113.776820">
        <ele>733.488</ele>
        <time>2018-12-28T10:27:02Z</time>
      </trkpt>
      <trkpt lat="36.959900" lon="-113.776680">
        <ele>733.569</ele>
        <time>2018-12-28T10:27:22Z</time>
      </trkpt>
      <trkpt lat="36.959890" lon="-113.776540">
        <ele>733.753</ele>
        <time>2018-12-28T10:27:42Z</time>
      </trkpt>
      <trkpt lat="36.959900" lon="-113.776420">
        <ele>734.187</ele>
        <time>2018-12-28T10:28:02Z</time>
      </trkpt>
      <trkpt lat="36.959890" lon="-113.776270">
        <ele>734.646</ele>
        <time>2018-12-28T10:28:22Z</time>
      </trkpt>
      <trkpt lat="36.959890" lon="-113.776130">
        <ele>736.181</ele>
        <time>2018-12-28T10:28:42Z</time>
      </trkpt>
      <trkpt lat="36.959890" lon="-113.776010">
        <ele>737.624</ele>
        <time>2018-12-28T10:29:02Z</time>
      </trkpt>
      <trkpt lat="36.959890" lon="-113.775880">
        <ele>740.204</ele>
        <time>2018-12-28T10:29:22Z</time>
      </trkpt>
      <trkpt lat="36.959880" lon="-113.775750">
        <ele>743.314</ele>
        <time>2018-12-28T10:29:42Z</time>
      </trkpt>
      <trkpt lat="36.959880" lon="-113.775630">
        <ele>744.808</ele>
        <time>2018-12-28T10:30:02Z</time>
      </trkpt>
      <trkpt lat="36.959870" lon="-113.775490">
        <ele>745.295</ele>
        <time>2018-12-28T10:30:22Z</time>
      </trkpt>
      <trkpt lat="36.959860" lon="-113.775350">
        <ele>745.483</ele>
        <time>2018-12-28T10:30:42Z</time>
      </trkpt>
      <trkpt lat="36.959850" lon="-113.775210">
        <ele>745.018</ele>
        <time>2018-12-28T10:31:02Z</time>
      </trkpt>
      <trkpt lat="36.959840" lon="-113.775080">
        <ele>744.739</ele>
        <time>2018-12-28T10:31:22Z</time>
      </trkpt>
      <trkpt lat="36.959830" lon="-113.774940">
        <ele>744.743</ele>
        <time>2018-12-28T10:31:42Z</time>
      </trkpt>
      <trkpt lat="36.959820" lon="-113.774810">
        <ele>744.677</ele>
        <time>2018-12-28T10:32:02Z</time>
      </trkpt>
      <trkpt lat="36.959810" lon="-113.774670">
        <ele>744.556</ele>
        <time>2018-12-28T10:32:22Z</time>
      </trkpt>
      <trkpt lat="36.959790" lon="-113.774540">
        <ele>744.451</ele>
        <time>2018-12-28T10:32:42Z</time>
      </trkpt>
      <trkpt lat="36.959780" lon="-113.774410">
        <ele>744.629</ele>
        <time>2018-12-28T10:33:02Z</time>
      </trkpt>
      <trkpt lat="36.959770" lon="-113.774280">
        <ele>744.800</ele>
        <time>2018-12-28T10:33:22Z</time>
      </trkpt>
      <trkpt lat="36.959750" lon="-113.774150">
        <ele>745.220</ele>
        <time>2018-12-28T10:33:42Z</time>
      </trkpt>
      <trkpt lat="36.959730" lon="-113.774010">
        <ele>745.608</ele>
        <time>2018-12-28T10:34:02Z</time>
      </trkpt>
      <trkpt lat="36.959600" lon="-113.773080">
        <ele>754.015</ele>
        <time>2018-12-28T10:34:22Z</time>
      </trkpt>
      <trkpt lat="36.959540" lon="-113.772660">
        <ele>757.983</ele>
        <time>2018-12-28T10:34:42Z</time>
      </trkpt>
      <trkpt lat="36.959500" lon="-113.772390">
        <ele>759.958</ele>
        <time>2018-12-28T10:35:02Z</time>
      </trkpt>
      <trkpt lat="36.959480" lon="-113.772260">
        <ele>760.949</ele>
        <time>2018-12-28T10:35:22Z</time>
      </trkpt>
      <trkpt lat="36.959460" lon="-113.772120">
        <ele>761.933</ele>
        <time>2018-12-28T10:35:42Z</time>
      </trkpt>
      <trkpt lat="36.959440" lon="-113.771990">
        <ele>762.617</ele>
        <time>2018-12-28T10:36:02Z</time>
      </trkpt>
      <trkpt lat="36.959430" lon="-113.771860">
        <ele>763.256</ele>
        <time>2018-12-28T10:36:22Z</time>
      </trkpt>
      <trkpt lat="36.959410" lon="-113.771720">
        <ele>763.421</ele>
        <time>2018-12-28T10:36:42Z</time>
      </trkpt>
      <trkpt lat="36.959390" lon="-113.771590">
        <ele>763.591</ele>
        <time>2018-12-28T10:37:02Z</time>
      </trkpt>
      <trkpt lat="36.959380" lon="-113.771460">
        <ele>763.781</ele>
        <time>2018-12-28T10:37:22Z</time>
      </trkpt>
      <trkpt lat="36.959370" lon="-113.771330">
        <ele>763.919</ele>
        <time>2018-12-28T10:37:42Z</time>
      </trkpt>
      <trkpt lat="36.959360" lon="-113.771200">
        <ele>764.108</ele>
        <time>2018-12-28T10:38:02Z</time>
      </trkpt>
      <trkpt lat="36.959350" lon="-113.771060">
        <ele>764.592</ele>
        <time>2018-12-28T10:38:22Z</time>
      </trkpt>
      <trkpt lat="36.959340" lon="-113.770920">
        <ele>764.850</ele>
        <time>2018-12-28T10:38:42Z</time>
      </trkpt>
      <trkpt lat="36.959340" lon="-113.770790">
        <ele>765.215</ele>
        <time>2018-12-28T10:39:02Z</time>
      </trkpt>
      <trkpt lat="36.959340" lon="-113.770660">
        <ele>765.566</ele>
        <time>2018-12-28T10:39:22Z</time>
      </trkpt>
      <trkpt lat="36.959340" lon="-113.770520">
        <ele>765.260</ele>
        <time>2018-12-28T10:39:42Z</time>
      </trkpt>
      <trkpt lat="36.959350" lon="-113.770380">
        <ele>765.114</ele>
        <time>2018-12-28T10:40:02Z</time>
      </trkpt>
      <trkpt lat="36.959360" lon="-113.770270">
        <ele>765.083</ele>
        <time>2018-12-28T10:40:22Z</time>
      </trkpt>
      <trkpt lat="36.959370" lon="-113.770130">
        <ele>764.958</ele>
        <time>2018-12-28T10:40:42Z</time>
      </trkpt>
      <trkpt lat="36.959380" lon="-113.769980">
        <ele>765.678</ele>
        <time>2018-12-28T10:41:02Z</time>
      </trkpt>
      <trkpt lat="36.959400" lon="-113.769850">
        <ele>766.033</ele>
        <time>2018-12-28T10:41:22Z</time>
      </trkpt>
      <trkpt lat="36.959420" lon="-113.769710">
        <ele>766.526</ele>
        <time>2018-12-28T10:41:42Z</time>
      </trkpt>
      <trkpt lat="36.959450" lon="-113.769590">
        <ele>766.608</ele>
        <time>2018-12-28T10:42:02Z</time>
      </trkpt>
      <trkpt lat="36.959470" lon="-113.769460">
        <ele>767.750</ele>
        <time>2018-12-28T10:42:22Z</time>
      </trkpt>
      <trkpt lat="36.959500" lon="-113.769340">
        <ele>768.048</ele>
        <time>2018-12-28T10:42:42Z</time>
      </trkpt>
      <trkpt lat="36.959530" lon="-113.769200">
        <ele>767.973</ele>
        <time>2018-12-28T10:43:02Z</time>
      </trkpt>
      <trkpt lat="36.959560" lon="-113.769070">
        <ele>766.744</ele>
        <time>2018-12-28T10:43:22Z</time>
      </trkpt>
      <trkpt lat="36.959620" lon="-113.768810">
        <ele>765.358</ele>
        <time>2018-12-28T10:43:42Z</time>
      </trkpt>
      <trkpt lat="36.959660" lon="-113.768690">
        <ele>765.952</ele>
        <time>2018-12-28T10:44:02Z</time>
      </trkpt>
      <trkpt lat="36.959690" lon="-113.768550">
        <ele>766.931</ele>
        <time>2018-12-28T10:44:22Z</time>
      </trkpt>
      <trkpt lat="36.959720" lon="-113.768430">
        <ele>767.726</ele>
        <time>2018-12-28T10:44:42Z</time>
      </trkpt>
      <trkpt lat="36.959760" lon="-113.768290">
        <ele>768.313</ele>
        <time>2018-12-28T10:45:02Z</time>
      </trkpt>
      <trkpt lat="36.959790" lon="-113.768160">
        <ele>768.243</ele>
        <time>2018-12-28T10:45:22Z</time>
      </trkpt>
      <trkpt lat="36.959820" lon="-113.768030">
        <ele>767.307</ele>
        <time>2018-12-28T10:45:42Z</time>
      </trkpt>
      <trkpt lat="36.959860" lon="-113.767900">
        <ele>765.108</ele>
        <time>2018-12-28T10:46:02Z</time>
      </trkpt>
      <trkpt lat="36.959890" lon="-113.767770">
        <ele>765.364</ele>
        <time>2018-12-28T10:46:22Z</time>
      </trkpt>
      <trkpt lat="36.959920" lon="-113.767630">
        <ele>765.582</ele>
        <time>2018-12-28T10:46:42Z</time>
      </trkpt>
      <trkpt lat="36.959950" lon="-113.767500">
        <ele>764.987</ele>
        <time>2018-12-28T10:47:02Z</time>
      </trkpt>
      <trkpt lat="36.959980" lon="-113.767370">
        <ele>764.168</ele>
        <time>2018-12-28T10:47:22Z</time>
      </trkpt>
      <trkpt lat="36.960000" lon="-113.767250">
        <ele>762.712</ele>
        <time>2018-12-28T10:47:42Z</time>
      </trkpt>
      <trkpt lat="36.960030" lon="-113.767120">
        <ele>761.256</ele>
        <time>2018-12-28T10:48:02Z</time>
      </trkpt>
      <trkpt lat="36.960060" lon="-113.766990">
        <ele>760.195</ele>
        <time>2018-12-28T10:48:22Z</time>
      </trkpt>
      <trkpt lat="36.960080" lon="-113.766860">
        <ele>759.550</ele>
        <time>2018-12-28T10:48:42Z</time>
      </trkpt>
      <trkpt lat="36.960110" lon="-113.766720">
        <ele>759.368</ele>
        <time>2018-12-28T10:49:02Z</time>
      </trkpt>
      <trkpt lat="36.960130" lon="-113.766590">
        <ele>759.342</ele>
        <time>2018-12-28T10:49:22Z</time>
      </trkpt>
      <trkpt lat="36.960160" lon="-113.766450">
        <ele>759.726</ele>
        <time>2018-12-28T10:49:42Z</time>
      </trkpt>
      <trkpt lat="36.960180" lon="-113.766320">
        <ele>759.908</ele>
        <time>2018-12-28T10:50:02Z</time>
      </trkpt>
      <trkpt lat="36.960220" lon="-113.766050">
        <ele>760.029</ele>
        <time>2018-12-28T10:50:22Z</time>
      </trkpt>
      <trkpt lat="36.960280" lon="-113.765640">
        <ele>759.497</ele>
        <time>2018-12-28T10:50:42Z</time>
      </trkpt>
      <trkpt lat="36.960350" lon="-113.765270">
        <ele>757.252</ele>
        <time>2018-12-28T10:51:02Z</time>
      </trkpt>
      <trkpt lat="36.960380" lon="-113.765110">
        <ele>755.653</ele>
        <time>2018-12-28T10:51:22Z</time>
      </trkpt>
      <trkpt lat="36.960400" lon="-113.764980">
        <ele>753.437</ele>
        <time>2018-12-28T10:51:42Z</time>
      </trkpt>
      <trkpt lat="36.960430" lon="-113.764860">
        <ele>751.641</ele>
        <time>2018-12-28T10:52:02Z</time>
      </trkpt>
      <trkpt lat="36.960460" lon="-113.764730">
        <ele>751.080</ele>
        <time>2018-12-28T10:52:22Z</time>
      </trkpt>
      <trkpt lat="36.960480" lon="-113.764600">
        <ele>750.215</ele>
        <time>2018-12-28T10:52:42Z</time>
      </trkpt>
      <trkpt lat="36.960510" lon="-113.764470">
        <ele>749.859</ele>
        <time>2018-12-28T10:53:02Z</time>
      </trkpt>
      <trkpt lat="36.960540" lon="-113.764340">
        <ele>749.403</ele>
        <time>2018-12-28T10:53:22Z</time>
      </trkpt>
      <trkpt lat="36.960580" lon="-113.764210">
        <ele>749.423</ele>
        <time>2018-12-28T10:53:42Z</time>
      </trkpt>
      <trkpt lat="36.960610" lon="-113.764080">
        <ele>749.408</ele>
        <time>2018-12-28T10:54:02Z</time>
      </trkpt>
      <trkpt lat="36.960640" lon="-113.763950">
        <ele>749.798</ele>
        <time>2018-12-28T10:54:22Z</time>
      </trkpt>
      <trkpt lat="36.960680" lon="-113.763810">
        <ele>750.026</ele>
        <time>2018-12-28T10:54:42Z</time>
      </trkpt>
      <trkpt lat="36.960720" lon="-113.763690">
        <ele>750.071</ele>
        <time>2018-12-28T10:55:02Z</time>
      </trkpt>
      <trkpt lat="36.960760" lon="-113.763570">
        <ele>749.782</ele>
        <time>2018-12-28T10:55:22Z</time>
      </trkpt>
      <trkpt lat="36.960800" lon="-113.763440">
        <ele>749.136</ele>
        <time>2018-12-28T10:55:42Z</time>
      </trkpt>
      <trkpt lat="36.960840" lon="-113.763310">
        <ele>748.250</ele>
        <time>2018-12-28T10:56:02Z</time>
      </trkpt>
      <trkpt lat="36.960880" lon="-113.763190">
        <ele>747.449</ele>
        <time>2018-12-28T10:56:22Z</time>
      </trkpt>
      <trkpt lat="36.960930" lon="-113.763080">
        <ele>746.894</ele>
        <time>2018-12-28T10:56:42Z</time>
      </trkpt>
      <trkpt lat="36.961090" lon="-113.762680">
        <ele>743.826</ele>
        <time>2018-12-28T10:57:02Z</time>
      </trkpt>
      <trkpt lat="36.961250" lon="-113.762310">
        <ele>743.047</ele>
        <time>2018-12-28T10:57:22Z</time>
      </trkpt>
      <trkpt lat="36.961450" lon="-113.761900">
        <ele>737.811</ele>
        <time>2018-12-28T10:57:42Z</time>
      </trkpt>
      <trkpt lat="36.961680" lon="-113.761470">
        <ele>735.308</ele>
        <time>2018-12-28T10:58:02Z</time>
      </trkpt>
      <trkpt lat="36.961780" lon="-113.761300">
        <ele>734.535</ele>
        <time>2018-12-28T10:58:22Z</time>
      </trkpt>
      <trkpt lat="36.961920" lon="-113.761080">
        <ele>734.793</ele>
        <time>2018-12-28T10:58:42Z</time>
      </trkpt>
      <trkpt lat="36.962110" lon="-113.760790">
        <ele>740.698</ele>
        <time>2018-12-28T10:59:02Z</time>
      </trkpt>
      <trkpt lat="36.962320" lon="-113.760500">
        <ele>740.659</ele>
        <time>2018-12-28T10:59:22Z</time>
      </trkpt>
      <trkpt lat="36.962540" lon="-113.760220">
        <ele>740.063</ele>
        <time>2018-12-28T10:59:42Z</time>
      </trkpt>
      <trkpt lat="36.962780" lon="-113.759940">
        <ele>734.857</ele>
        <time>2018-12-28T11:00:02Z</time>
      </trkpt>
      <trkpt lat="36.962920" lon="-113.759780">
        <ele>730.826</ele>
        <time>2018-12-28T11:00:22Z</time>
      </trkpt>
      <trkpt lat="36.963080" lon="-113.759630">
        <ele>731.341</ele>
        <time>2018-12-28T11:00:42Z</time>
      </trkpt>
      <trkpt lat="36.963320" lon="-113.759380">
        <ele>731.052</ele>
        <time>2018-12-28T11:01:02Z</time>
      </trkpt>
      <trkpt lat="36.963470" lon="-113.759230">
        <ele>727.753</ele>
        <time>2018-12-28T11:01:22Z</time>
      </trkpt>
      <trkpt lat="36.963570" lon="-113.759150">
        <ele>726.608</ele>
        <time>2018-12-28T11:01:42Z</time>
      </trkpt>
      <trkpt lat="36.963790" lon="-113.758960">
        <ele>721.608</ele>
        <time>2018-12-28T11:02:02Z</time>
      </trkpt>
      <trkpt lat="36.964130" lon="-113.758680">
        <ele>716.868</ele>
        <time>2018-12-28T11:02:22Z</time>
      </trkpt>
      <trkpt lat="36.964480" lon="-113.758420">
        <ele>712.236</ele>
        <time>2018-12-28T11:02:42Z</time>
      </trkpt>
      <trkpt lat="36.964840" lon="-113.758130">
        <ele>711.661</ele>
        <time>2018-12-28T11:03:02Z</time>
      </trkpt>
      <trkpt lat="36.965220" lon="-113.757820">
        <ele>712.822</ele>
        <time>2018-12-28T11:03:22Z</time>
      </trkpt>
      <trkpt lat="36.965490" lon="-113.757600">
        <ele>710.616</ele>
        <time>2018-12-28T11:03:42Z</time>
      </trkpt>
      <trkpt lat="36.966410" lon="-113.756860">
        <ele>709.030</ele>
        <time>2018-12-28T11:04:02Z</time>
      </trkpt>
      <trkpt lat="36.966920" lon="-113.756430">
        <ele>711.279</ele>
        <time>2018-12-28T11:04:22Z</time>
      </trkpt>
      <trkpt lat="36.968320" lon="-113.755310">
        <ele>718.564</ele>
        <time>2018-12-28T11:04:42Z</time>
      </trkpt>
      <trkpt lat="36.968770" lon="-113.754950">
        <ele>718.827</ele>
        <time>2018-12-28T11:05:02Z</time>
      </trkpt>
      <trkpt lat="36.969250" lon="-113.754520">
        <ele>718.468</ele>
        <time>2018-12-28T11:05:22Z</time>
      </trkpt>
      <trkpt lat="36.969410" lon="-113.754340">
        <ele>721.114</ele>
        <time>2018-12-28T11:05:42Z</time>
      </trkpt>
      <trkpt lat="36.969590" lon="-113.754130">
        <ele>724.808</ele>
        <time>2018-12-28T11:06:02Z</time>
      </trkpt>
      <trkpt lat="36.969770" lon="-113.753890">
        <ele>726.855</ele>
        <time>2018-12-28T11:06:22Z</time>
      </trkpt>
      <trkpt lat="36.969880" lon="-113.753740">
        <ele>728.423</ele>
        <time>2018-12-28T11:06:42Z</time>
      </trkpt>
      <trkpt lat="36.969990" lon="-113.753570">
        <ele>728.278</ele>
        <time>2018-12-28T11:07:02Z</time>
      </trkpt>
      <trkpt lat="36.970130" lon="-113.753350">
        <ele>728.189</ele>
        <time>2018-12-28T11:07:22Z</time>
      </trkpt>
      <trkpt lat="36.970250" lon="-113.753130">
        <ele>726.433</ele>
        <time>2018-12-28T11:07:42Z</time>
      </trkpt>
      <trkpt lat="36.970370" lon="-113.752900">
        <ele>727.687</ele>
        <time>2018-12-28T11:08:02Z</time>
      </trkpt>
      <trkpt lat="36.970460" lon="-113.752710">
        <ele>728.646</ele>
        <time>2018-12-28T11:08:22Z</time>
      </trkpt>
      <trkpt lat="36.970560" lon="-113.752500">
        <ele>728.261</ele>
        <time>2018-12-28T11:08:42Z</time>
      </trkpt>
      <trkpt lat="36.970650" lon="-113.752250">
        <ele>726.624</ele>
        <time>2018-12-28T11:09:02Z</time>
      </trkpt>
      <trkpt lat="36.970750" lon="-113.751960">
        <ele>722.804</ele>
        <time>2018-12-28T11:09:22Z</time>
      </trkpt>
      <trkpt lat="36.970810" lon="-113.751770">
        <ele>721.514</ele>
        <time>2018-12-28T11:09:42Z</time>
      </trkpt>
      <trkpt lat="36.970860" lon="-113.751600">
        <ele>723.408</ele>
        <time>2018-12-28T11:10:02Z</time>
      </trkpt>
      <trkpt lat="36.970900" lon="-113.751430">
        <ele>725.495</ele>
        <time>2018-12-28T11:10:22Z</time>
      </trkpt>
      <trkpt lat="36.970980" lon="-113.751080">
        <ele>730.123</ele>
        <time>2018-12-28T11:10:42Z</time>
      </trkpt>
      <trkpt lat="36.971040" lon="-113.750760">
        <ele>733.278</ele>
        <time>2018-12-28T11:11:02Z</time>
      </trkpt>
      <trkpt lat="36.971090" lon="-113.750440">
        <ele>736.419</ele>
        <time>2018-12-28T11:11:22Z</time>
      </trkpt>
      <trkpt lat="36.971120" lon="-113.750050">
        <ele>740.933</ele>
        <time>2018-12-28T11:11:42Z</time>
      </trkpt>
      <trkpt lat="36.971140" lon="-113.749870">
        <ele>743.067</ele>
        <time>2018-12-28T11:12:02Z</time>
      </trkpt>
      <trkpt lat="36.971140" lon="-113.749700">
        <ele>743.776</ele>
        <time>2018-12-28T11:12:22Z</time>
      </trkpt>
      <trkpt lat="36.971140" lon="-113.749260">
        <ele>742.991</ele>
        <time>2018-12-28T11:12:42Z</time>
      </trkpt>
      <trkpt lat="36.971120" lon="-113.748820">
        <ele>741.431</ele>
        <time>2018-12-28T11:13:02Z</time>
      </trkpt>
      <trkpt lat="36.971100" lon="-113.748390">
        <ele>741.461</ele>
        <time>2018-12-28T11:13:22Z</time>
      </trkpt>
      <trkpt lat="36.971010" lon="-113.746850">
        <ele>745.607</ele>
        <time>2018-12-28T11:13:42Z</time>
      </trkpt>
      <trkpt lat="36.970920" lon="-113.745120">
        <ele>754.108</ele>
        <time>2018-12-28T11:14:02Z</time>
      </trkpt>
      <trkpt lat="36.970880" lon="-113.744310">
        <ele>757.566</ele>
        <time>2018-12-28T11:14:22Z</time>
      </trkpt>
      <trkpt lat="36.970850" lon="-113.743860">
        <ele>758.614</ele>
        <time>2018-12-28T11:14:42Z</time>
      </trkpt>
      <trkpt lat="36.970790" lon="-113.742720">
        <ele>758.669</ele>
        <time>2018-12-28T11:15:02Z</time>
      </trkpt>
      <trkpt lat="36.970750" lon="-113.741840">
        <ele>757.220</ele>
        <time>2018-12-28T11:15:22Z</time>
      </trkpt>
      <trkpt lat="36.970610" lon="-113.739360">
        <ele>746.364</ele>
        <time>2018-12-28T11:15:42Z</time>
      </trkpt>
      <trkpt lat="36.970570" lon="-113.738540">
        <ele>746.278</ele>
        <time>2018-12-28T11:16:02Z</time>
      </trkpt>
      <trkpt lat="36.970530" lon="-113.737950">
        <ele>745.717</ele>
        <time>2018-12-28T11:16:22Z</time>
      </trkpt>
      <trkpt lat="36.970510" lon="-113.737700">
        <ele>745.642</ele>
        <time>2018-12-28T11:16:42Z</time>
      </trkpt>
      <trkpt lat="36.970490" lon="-113.737380">
        <ele>749.669</ele>
        <time>2018-12-28T11:17:02Z</time>
      </trkpt>
      <trkpt lat="36.970450" lon="-113.736950">
        <ele>753.204</ele>
        <time>2018-12-28T11:17:22Z</time>
      </trkpt>
      <trkpt lat="36.970420" lon="-113.736600">
        <ele>749.824</ele>
        <time>2018-12-28T11:17:42Z</time>
      </trkpt>
      <trkpt lat="36.970360" lon="-113.736090">
        <ele>742.108</ele>
        <time>2018-12-28T11:18:02Z</time>
      </trkpt>
      <trkpt lat="36.970330" lon="-113.735810">
        <ele>741.269</ele>
        <time>2018-12-28T11:18:22Z</time>
      </trkpt>
      <trkpt lat="36.970270" lon="-113.735350">
        <ele>739.767</ele>
        <time>2018-12-28T11:18:42Z</time>
      </trkpt>
      <trkpt lat="36.970080" lon="-113.733870">
        <ele>739.032</ele>
        <time>2018-12-28T11:19:02Z</time>
      </trkpt>
      <trkpt lat="36.970050" lon="-113.733600">
        <ele>736.573</ele>
        <time>2018-12-28T11:19:22Z</time>
      </trkpt>
      <trkpt lat="36.970020" lon="-113.733380">
        <ele>734.677</ele>
        <time>2018-12-28T11:19:42Z</time>
      </trkpt>
      <trkpt lat="36.970010" lon="-113.733230">
        <ele>733.781</ele>
        <time>2018-12-28T11:20:02Z</time>
      </trkpt>
      <trkpt lat="36.969990" lon="-113.733000">
        <ele>734.290</ele>
        <time>2018-12-28T11:20:22Z</time>
      </trkpt>
      <trkpt lat="36.969980" lon="-113.732750">
        <ele>735.295</ele>
        <time>2018-12-28T11:20:42Z</time>
      </trkpt>
      <trkpt lat="36.969980" lon="-113.732650">
        <ele>735.549</ele>
        <time>2018-12-28T11:21:02Z</time>
      </trkpt>
      <trkpt lat="36.969980" lon="-113.732440">
        <ele>737.002</ele>
        <time>2018-12-28T11:21:22Z</time>
      </trkpt>
      <trkpt lat="36.969990" lon="-113.732270">
        <ele>738.322</ele>
        <time>2018-12-28T11:21:42Z</time>
      </trkpt>
      <trkpt lat="36.970000" lon="-113.732110">
        <ele>739.908</ele>
        <time>2018-12-28T11:22:02Z</time>
      </trkpt>
      <trkpt lat="36.970030" lon="-113.731910">
        <ele>741.467</ele>
        <time>2018-12-28T11:22:22Z</time>
      </trkpt>
      <trkpt lat="36.970050" lon="-113.731710">
        <ele>742.555</ele>
        <time>2018-12-28T11:22:42Z</time>
      </trkpt>
      <trkpt lat="36.970090" lon="-113.731470">
        <ele>742.240</ele>
        <time>2018-12-28T11:23:02Z</time>
      </trkpt>
      <trkpt lat="36.970130" lon="-113.731260">
        <ele>740.111</ele>
        <time>2018-12-28T11:23:22Z</time>
      </trkpt>
      <trkpt lat="36.970140" lon="-113.731220">
        <ele>739.425</ele>
        <time>2018-12-28T11:23:42Z</time>
      </trkpt>
      <trkpt lat="36.970190" lon="-113.731030">
        <ele>742.449</ele>
        <time>2018-12-28T11:24:02Z</time>
      </trkpt>
      <trkpt lat="36.970320" lon="-113.730470">
        <ele>743.438</ele>
        <time>2018-12-28T11:24:22Z</time>
      </trkpt>
      <trkpt lat="36.970340" lon="-113.730390">
        <ele>742.393</ele>
        <time>2018-12-28T11:24:42Z</time>
      </trkpt>
      <trkpt lat="36.970370" lon="-113.730280">
        <ele>739.796</ele>
        <time>2018-12-28T11:25:02Z</time>
      </trkpt>
      <trkpt lat="36.970390" lon="-113.730160">
        <ele>735.931</ele>
        <time>2018-12-28T11:25:22Z</time>
      </trkpt>
      <trkpt lat="36.970410" lon="-113.730090">
        <ele>731.624</ele>
        <time>2018-12-28T11:25:42Z</time>
      </trkpt>
      <trkpt lat="36.970430" lon="-113.729960">
        <ele>722.708</ele>
        <time>2018-12-28T11:26:02Z</time>
      </trkpt>
      <trkpt lat="36.970440" lon="-113.729890">
        <ele>718.232</ele>
        <time>2018-12-28T11:26:22Z</time>
      </trkpt>
      <trkpt lat="36.970480" lon="-113.729710">
        <ele>715.030</ele>
        <time>2018-12-28T11:26:42Z</time>
      </trkpt>
      <trkpt lat="36.970510" lon="-113.729590">
        <ele>714.175</ele>
        <time>2018-12-28T11:27:02Z</time>
      </trkpt>
      <trkpt lat="36.970560" lon="-113.729380">
        <ele>715.296</ele>
        <time>2018-12-28T11:27:22Z</time>
      </trkpt>
      <trkpt lat="36.970690" lon="-113.728880">
        <ele>726.570</ele>
        <time>2018-12-28T11:27:42Z</time>
      </trkpt>
      <trkpt lat="36.970790" lon="-113.728530">
        <ele>734.234</ele>
        <time>2018-12-28T11:28:02Z</time>
      </trkpt>
      <trkpt lat="36.970910" lon="-113.728040">
        <ele>737.913</ele>
        <time>2018-12-28T11:28:22Z</time>
      </trkpt>
      <trkpt lat="36.971080" lon="-113.727320">
        <ele>743.578</ele>
        <time>2018-12-28T11:28:42Z</time>
      </trkpt>
      <trkpt lat="36.971130" lon="-113.727090">
        <ele>744.227</ele>
        <time>2018-12-28T11:29:02Z</time>
      </trkpt>
      <trkpt lat="36.971160" lon="-113.726950">
        <ele>744.568</ele>
        <time>2018-12-28T11:29:22Z</time>
      </trkpt>
      <trkpt lat="36.971190" lon="-113.726790">
        <ele>744.714</ele>
        <time>2018-12-28T11:29:42Z</time>
      </trkpt>
      <trkpt lat="36.971230" lon="-113.726490">
        <ele>744.808</ele>
        <time>2018-12-28T11:30:02Z</time>
      </trkpt>
      <trkpt lat="36.971240" lon="-113.726370">
        <ele>745.125</ele>
        <time>2018-12-28T11:30:22Z</time>
      </trkpt>
      <trkpt lat="36.971250" lon="-113.726180">
        <ele>746.483</ele>
        <time>2018-12-28T11:30:42Z</time>
      </trkpt>
      <trkpt lat="36.971270" lon="-113.725890">
        <ele>750.478</ele>
        <time>2018-12-28T11:31:02Z</time>
      </trkpt>
      <trkpt lat="36.971270" lon="-113.725620">
        <ele>753.459</ele>
        <time>2018-12-28T11:31:22Z</time>
      </trkpt>
      <trkpt lat="36.971260" lon="-113.725430">
        <ele>754.983</ele>
        <time>2018-12-28T11:31:42Z</time>
      </trkpt>
      <trkpt lat="36.971240" lon="-113.725260">
        <ele>755.317</ele>
        <time>2018-12-28T11:32:02Z</time>
      </trkpt>
      <trkpt lat="36.971230" lon="-113.725070">
        <ele>755.826</ele>
        <time>2018-12-28T11:32:22Z</time>
      </trkpt>
      <trkpt lat="36.971190" lon="-113.724850">
        <ele>755.961</ele>
        <time>2018-12-28T11:32:42Z</time>
      </trkpt>
      <trkpt lat="36.971160" lon="-113.724660">
        <ele>756.023</ele>
        <time>2018-12-28T11:33:02Z</time>
      </trkpt>
      <trkpt lat="36.971040" lon="-113.724100">
        <ele>755.983</ele>
        <time>2018-12-28T11:33:22Z</time>
      </trkpt>
      <trkpt lat="36.970870" lon="-113.723380">
        <ele>755.811</ele>
        <time>2018-12-28T11:33:42Z</time>
      </trkpt>
      <trkpt lat="36.970590" lon="-113.722210">
        <ele>748.808</ele>
        <time>2018-12-28T11:34:02Z</time>
      </trkpt>
      <trkpt lat="36.970350" lon="-113.721230">
        <ele>748.135</ele>
        <time>2018-12-28T11:34:22Z</time>
      </trkpt>
      <trkpt lat="36.970300" lon="-113.721020">
        <ele>747.663</ele>
        <time>2018-12-28T11:34:42Z</time>
      </trkpt>
      <trkpt lat="36.970270" lon="-113.720880">
        <ele>747.118</ele>
        <time>2018-12-28T11:35:02Z</time>
      </trkpt>
      <trkpt lat="36.970230" lon="-113.720680">
        <ele>746.219</ele>
        <time>2018-12-28T11:35:22Z</time>
      </trkpt>
      <trkpt lat="36.970190" lon="-113.720460">
        <ele>746.053</ele>
        <time>2018-12-28T11:35:42Z</time>
      </trkpt>
      <trkpt lat="36.970170" lon="-113.720240">
        <ele>746.377</ele>
        <time>2018-12-28T11:36:02Z</time>
      </trkpt>
      <trkpt lat="36.970140" lon="-113.719970">
        <ele>747.166</ele>
        <time>2018-12-28T11:36:22Z</time>
      </trkpt>
      <trkpt lat="36.970130" lon="-113.719720">
        <ele>747.511</ele>
        <time>2018-12-28T11:36:42Z</time>
      </trkpt>
      <trkpt lat="36.970130" lon="-113.719460">
        <ele>748.083</ele>
        <time>2018-12-28T11:37:02Z</time>
      </trkpt>
      <trkpt lat="36.970130" lon="-113.719180">
        <ele>748.825</ele>
        <time>2018-12-28T11:37:22Z</time>
      </trkpt>
      <trkpt lat="36.970150" lon="-113.718960">
        <ele>749.117</ele>
        <time>2018-12-28T11:37:42Z</time>
      </trkpt>
      <trkpt lat="36.970190" lon="-113.718620">
        <ele>749.008</ele>
        <time>2018-12-28T11:38:02Z</time>
      </trkpt>
      <trkpt lat="36.970220" lon="-113.718450">
        <ele>748.771</ele>
        <time>2018-12-28T11:38:22Z</time>
      </trkpt>
      <trkpt lat="36.970260" lon="-113.718240">
        <ele>748.229</ele>
        <time>2018-12-28T11:38:42Z</time>
      </trkpt>
      <trkpt lat="36.970330" lon="-113.717950">
        <ele>748.144</ele>
        <time>2018-12-28T11:39:02Z</time>
      </trkpt>
      <trkpt lat="36.970410" lon="-113.717690">
        <ele>748.635</ele>
        <time>2018-12-28T11:39:22Z</time>
      </trkpt>
      <trkpt lat="36.970490" lon="-113.717460">
        <ele>748.819</ele>
        <time>2018-12-28T11:39:42Z</time>
      </trkpt>
      <trkpt lat="36.970570" lon="-113.717270">
        <ele>749.093</ele>
        <time>2018-12-28T11:40:02Z</time>
      </trkpt>
      <trkpt lat="36.970690" lon="-113.716980">
        <ele>750.312</ele>
        <time>2018-12-28T11:40:22Z</time>
      </trkpt>
      <trkpt lat="36.970840" lon="-113.716680">
        <ele>752.347</ele>
        <time>2018-12-28T11:40:42Z</time>
      </trkpt>
      <trkpt lat="36.970940" lon="-113.716500">
        <ele>753.431</ele>
        <time>2018-12-28T11:41:02Z</time>
      </trkpt>
      <trkpt lat="36.971050" lon="-113.716330">
        <ele>754.561</ele>
        <time>2018-12-28T11:41:22Z</time>
      </trkpt>
      <trkpt lat="36.971130" lon="-113.716220">
        <ele>755.907</ele>
        <time>2018-12-28T11:41:42Z</time>
      </trkpt>
      <trkpt lat="36.971260" lon="-113.716030">
        <ele>756.208</ele>
        <time>2018-12-28T11:42:02Z</time>
      </trkpt>
      <trkpt lat="36.971420" lon="-113.715800">
        <ele>761.916</ele>
        <time>2018-12-28T11:42:22Z</time>
      </trkpt>
      <trkpt lat="36.971490" lon="-113.715690">
        <ele>763.564</ele>
        <time>2018-12-28T11:42:42Z</time>
      </trkpt>
      <trkpt lat="36.971570" lon="-113.715590">
        <ele>764.459</ele>
        <time>2018-12-28T11:43:02Z</time>
      </trkpt>
      <trkpt lat="36.971700" lon="-113.715400">
        <ele>765.750</ele>
        <time>2018-12-28T11:43:22Z</time>
      </trkpt>
      <trkpt lat="36.972210" lon="-113.714720">
        <ele>766.284</ele>
        <time>2018-12-28T11:43:42Z</time>
      </trkpt>
      <trkpt lat="36.972630" lon="-113.714180">
        <ele>765.348</ele>
        <time>2018-12-28T11:44:02Z</time>
      </trkpt>
      <trkpt lat="36.972840" lon="-113.713900">
        <ele>766.957</ele>
        <time>2018-12-28T11:44:22Z</time>
      </trkpt>
      <trkpt lat="36.972970" lon="-113.713690">
        <ele>765.972</ele>
        <time>2018-12-28T11:44:42Z</time>
      </trkpt>
      <trkpt lat="36.973040" lon="-113.713590">
        <ele>765.294</ele>
        <time>2018-12-28T11:45:02Z</time>
      </trkpt>
      <trkpt lat="36.973130" lon="-113.713440">
        <ele>764.157</ele>
        <time>2018-12-28T11:45:22Z</time>
      </trkpt>
      <trkpt lat="36.973220" lon="-113.713280">
        <ele>763.922</ele>
        <time>2018-12-28T11:45:42Z</time>
      </trkpt>
      <trkpt lat="36.973310" lon="-113.713100">
        <ele>766.008</ele>
        <time>2018-12-28T11:46:02Z</time>
      </trkpt>
      <trkpt lat="36.973450" lon="-113.712750">
        <ele>768.782</ele>
        <time>2018-12-28T11:46:22Z</time>
      </trkpt>
      <trkpt lat="36.973530" lon="-113.712550">
        <ele>768.910</ele>
        <time>2018-12-28T11:46:42Z</time>
      </trkpt>
      <trkpt lat="36.973600" lon="-113.712350">
        <ele>769.175</ele>
        <time>2018-12-28T11:47:02Z</time>
      </trkpt>
      <trkpt lat="36.973630" lon="-113.712240">
        <ele>770.066</ele>
        <time>2018-12-28T11:47:22Z</time>
      </trkpt>
      <trkpt lat="36.973660" lon="-113.712130">
        <ele>770.430</ele>
        <time>2018-12-28T11:47:42Z</time>
      </trkpt>
      <trkpt lat="36.973710" lon="-113.711910">
        <ele>770.214</ele>
        <time>2018-12-28T11:48:02Z</time>
      </trkpt>
      <trkpt lat="36.973730" lon="-113.711810">
        <ele>769.723</ele>
        <time>2018-12-28T11:48:22Z</time>
      </trkpt>
      <trkpt lat="36.973770" lon="-113.711590">
        <ele>768.838</ele>
        <time>2018-12-28T11:48:42Z</time>
      </trkpt>
      <trkpt lat="36.973790" lon="-113.711470">
        <ele>768.681</ele>
        <time>2018-12-28T11:49:02Z</time>
      </trkpt>
      <trkpt lat="36.973820" lon="-113.711310">
        <ele>768.461</ele>
        <time>2018-12-28T11:49:22Z</time>
      </trkpt>
      <trkpt lat="36.973840" lon="-113.711060">
        <ele>768.317</ele>
        <time>2018-12-28T11:49:42Z</time>
      </trkpt>
      <trkpt lat="36.973850" lon="-113.710900">
        <ele>768.408</ele>
        <time>2018-12-28T11:50:02Z</time>
      </trkpt>
      <trkpt lat="36.973860" lon="-113.710700">
        <ele>768.651</ele>
        <time>2018-12-28T11:50:22Z</time>
      </trkpt>
      <trkpt lat="36.973860" lon="-113.710480">
        <ele>770.249</ele>
        <time>2018-12-28T11:50:42Z</time>
      </trkpt>
      <trkpt lat="36.973860" lon="-113.710250">
        <ele>771.814</ele>
        <time>2018-12-28T11:51:02Z</time>
      </trkpt>
      <trkpt lat="36.973870" lon="-113.710030">
        <ele>773.775</ele>
        <time>2018-12-28T11:51:22Z</time>
      </trkpt>
      <trkpt lat="36.973860" lon="-113.709620">
        <ele>775.669</ele>
        <time>2018-12-28T11:51:42Z</time>
      </trkpt>
      <trkpt lat="36.973860" lon="-113.709290">
        <ele>775.123</ele>
        <time>2018-12-28T11:52:02Z</time>
      </trkpt>
      <trkpt lat="36.973850" lon="-113.708900">
        <ele>775.542</ele>
        <time>2018-12-28T11:52:22Z</time>
      </trkpt>
      <trkpt lat="36.973840" lon="-113.708460">
        <ele>776.937</ele>
        <time>2018-12-28T11:52:42Z</time>
      </trkpt>
      <trkpt lat="36.973820" lon="-113.707990">
        <ele>778.224</ele>
        <time>2018-12-28T11:53:02Z</time>
      </trkpt>
      <trkpt lat="36.973800" lon="-113.707530">
        <ele>780.004</ele>
        <time>2018-12-28T11:53:22Z</time>
      </trkpt>
      <trkpt lat="36.973790" lon="-113.707190">
        <ele>783.714</ele>
        <time>2018-12-28T11:53:42Z</time>
      </trkpt>
      <trkpt lat="36.973780" lon="-113.706730">
        <ele>786.608</ele>
        <time>2018-12-28T11:54:02Z</time>
      </trkpt>
      <trkpt lat="36.973780" lon="-113.706540">
        <ele>786.925</ele>
        <time>2018-12-28T11:54:22Z</time>
      </trkpt>
      <trkpt lat="36.973770" lon="-113.706140">
        <ele>787.643</ele>
        <time>2018-12-28T11:54:42Z</time>
      </trkpt>
      <trkpt lat="36.973770" lon="-113.705580">
        <ele>787.818</ele>
        <time>2018-12-28T11:55:02Z</time>
      </trkpt>
      <trkpt lat="36.973780" lon="-113.703610">
        <ele>789.819</ele>
        <time>2018-12-28T11:55:22Z</time>
      </trkpt>
      <trkpt lat="36.973800" lon="-113.700280">
        <ele>799.073</ele>
        <time>2018-12-28T11:55:42Z</time>
      </trkpt>
      <trkpt lat="36.973800" lon="-113.699510">
        <ele>801.327</ele>
        <time>2018-12-28T11:56:02Z</time>
      </trkpt>
      <trkpt lat="36.973790" lon="-113.698940">
        <ele>801.326</ele>
        <time>2018-12-28T11:56:22Z</time>
      </trkpt>
      <trkpt lat="36.973780" lon="-113.698510">
        <ele>801.771</ele>
        <time>2018-12-28T11:56:42Z</time>
      </trkpt>
      <trkpt lat="36.973760" lon="-113.698190">
        <ele>801.893</ele>
        <time>2018-12-28T11:57:02Z</time>
      </trkpt>
      <trkpt lat="36.973700" lon="-113.697570">
        <ele>802.565</ele>
        <time>2018-12-28T11:57:22Z</time>
      </trkpt>
      <trkpt lat="36.973630" lon="-113.696980">
        <ele>807.221</ele>
        <time>2018-12-28T11:57:42Z</time>
      </trkpt>
      <trkpt lat="36.973550" lon="-113.696520">
        <ele>809.008</ele>
        <time>2018-12-28T11:58:02Z</time>
      </trkpt>
      <trkpt lat="36.973460" lon="-113.696040">
        <ele>808.472</ele>
        <time>2018-12-28T11:58:22Z</time>
      </trkpt>
      <trkpt lat="36.973340" lon="-113.695540">
        <ele>810.210</ele>
        <time>2018-12-28T11:58:42Z</time>
      </trkpt>
      <trkpt lat="36.973210" lon="-113.694990">
        <ele>812.965</ele>
        <time>2018-12-28T11:59:02Z</time>
      </trkpt>
      <trkpt lat="36.972740" lon="-113.693170">
        <ele>810.916</ele>
        <time>2018-12-28T11:59:22Z</time>
      </trkpt>
      <trkpt lat="36.972500" lon="-113.692230">
        <ele>810.520</ele>
        <time>2018-12-28T11:59:42Z</time>
      </trkpt>
      <trkpt lat="36.972390" lon="-113.691670">
        <ele>811.174</ele>
        <time>2018-12-28T12:00:02Z</time>
      </trkpt>
      <trkpt lat="36.972350" lon="-113.691430">
        <ele>811.483</ele>
        <time>2018-12-28T12:00:22Z</time>
      </trkpt>
      <trkpt lat="36.972320" lon="-113.691130">
        <ele>811.318</ele>
        <time>2018-12-28T12:00:42Z</time>
      </trkpt>
      <trkpt lat="36.972300" lon="-113.690900">
        <ele>811.288</ele>
        <time>2018-12-28T12:01:02Z</time>
      </trkpt>
      <trkpt lat="36.972290" lon="-113.690680">
        <ele>811.024</ele>
        <time>2018-12-28T12:01:22Z</time>
      </trkpt>
      <trkpt lat="36.972280" lon="-113.690280">
        <ele>811.426</ele>
        <time>2018-12-28T12:01:42Z</time>
      </trkpt>
      <trkpt lat="36.972300" lon="-113.689900">
        <ele>812.608</ele>
        <time>2018-12-28T12:02:02Z</time>
      </trkpt>
      <trkpt lat="36.972320" lon="-113.689610">
        <ele>813.911</ele>
        <time>2018-12-28T12:02:22Z</time>
      </trkpt>
      <trkpt lat="36.972360" lon="-113.689280">
        <ele>815.549</ele>
        <time>2018-12-28T12:02:42Z</time>
      </trkpt>
      <trkpt lat="36.972410" lon="-113.688980">
        <ele>816.324</ele>
        <time>2018-12-28T12:03:02Z</time>
      </trkpt>
      <trkpt lat="36.972450" lon="-113.688780">
        <ele>817.055</ele>
        <time>2018-12-28T12:03:22Z</time>
      </trkpt>
      <trkpt lat="36.972530" lon="-113.688450">
        <ele>818.039</ele>
        <time>2018-12-28T12:03:42Z</time>
      </trkpt>
      <trkpt lat="36.972610" lon="-113.688150">
        <ele>818.223</ele>
        <time>2018-12-28T12:04:02Z</time>
      </trkpt>
      <trkpt lat="36.972740" lon="-113.687780">
        <ele>820.062</ele>
        <time>2018-12-28T12:04:22Z</time>
      </trkpt>
      <trkpt lat="36.972840" lon="-113.687520">
        <ele>822.657</ele>
        <time>2018-12-28T12:04:42Z</time>
      </trkpt>
      <trkpt lat="36.973020" lon="-113.687130">
        <ele>824.587</ele>
        <time>2018-12-28T12:05:02Z</time>
      </trkpt>
      <trkpt lat="36.973170" lon="-113.686840">
        <ele>824.742</ele>
        <time>2018-12-28T12:05:22Z</time>
      </trkpt>
      <trkpt lat="36.973300" lon="-113.686590">
        <ele>825.026</ele>
        <time>2018-12-28T12:05:42Z</time>
      </trkpt>
      <trkpt lat="36.973490" lon="-113.686230">
        <ele>825.208</ele>
        <time>2018-12-28T12:06:02Z</time>
      </trkpt>
      <trkpt lat="36.973700" lon="-113.685820">
        <ele>825.691</ele>
        <time>2018-12-28T12:06:22Z</time>
      </trkpt>
      <trkpt lat="36.974000" lon="-113.685240">
        <ele>826.319</ele>
        <time>2018-12-28T12:06:42Z</time>
      </trkpt>
      <trkpt lat="36.974450" lon="-113.684330">
        <ele>826.274</ele>
        <time>2018-12-28T12:07:02Z</time>
      </trkpt>
      <trkpt lat="36.974580" lon="-113.684050">
        <ele>826.715</ele>
        <time>2018-12-28T12:07:22Z</time>
      </trkpt>
      <trkpt lat="36.974750" lon="-113.683650">
        <ele>827.239</ele>
        <time>2018-12-28T12:07:42Z</time>
      </trkpt>
      <trkpt lat="36.974910" lon="-113.683210">
        <ele>827.283</ele>
        <time>2018-12-28T12:08:02Z</time>
      </trkpt>
      <trkpt lat="36.975080" lon="-113.682720">
        <ele>827.172</ele>
        <time>2018-12-28T12:08:22Z</time>
      </trkpt>
      <trkpt lat="36.975190" lon="-113.682350">
        <ele>827.587</ele>
        <time>2018-12-28T12:08:42Z</time>
      </trkpt>
      <trkpt lat="36.975320" lon="-113.681900">
        <ele>827.222</ele>
        <time>2018-12-28T12:09:02Z</time>
      </trkpt>
      <trkpt lat="36.975380" lon="-113.681640">
        <ele>827.462</ele>
        <time>2018-12-28T12:09:22Z</time>
      </trkpt>
      <trkpt lat="36.975460" lon="-113.681270">
        <ele>827.508</ele>
        <time>2018-12-28T12:09:42Z</time>
      </trkpt>
      <trkpt lat="36.975520" lon="-113.680990">
        <ele>827.108</ele>
        <time>2018-12-28T12:10:02Z</time>
      </trkpt>
      <trkpt lat="36.975610" lon="-113.680510">
        <ele>827.215</ele>
        <time>2018-12-28T12:10:22Z</time>
      </trkpt>
      <trkpt lat="36.975690" lon="-113.680010">
        <ele>824.183</ele>
        <time>2018-12-28T12:10:42Z</time>
      </trkpt>
      <trkpt lat="36.975930" lon="-113.678510">
        <ele>820.168</ele>
        <time>2018-12-28T12:11:02Z</time>
      </trkpt>
      <trkpt lat="36.976050" lon="-113.677780">
        <ele>823.029</ele>
        <time>2018-12-28T12:11:22Z</time>
      </trkpt>
      <trkpt lat="36.976150" lon="-113.677350">
        <ele>825.313</ele>
        <time>2018-12-28T12:11:42Z</time>
      </trkpt>
      <trkpt lat="36.976250" lon="-113.676970">
        <ele>826.627</ele>
        <time>2018-12-28T12:12:02Z</time>
      </trkpt>
      <trkpt lat="36.976350" lon="-113.676700">
        <ele>827.686</ele>
        <time>2018-12-28T12:12:22Z</time>
      </trkpt>
      <trkpt lat="36.976400" lon="-113.676540">
        <ele>827.641</ele>
        <time>2018-12-28T12:12:42Z</time>
      </trkpt>
      <trkpt lat="36.976570" lon="-113.676160">
        <ele>828.973</ele>
        <time>2018-12-28T12:13:02Z</time>
      </trkpt>
      <trkpt lat="36.976720" lon="-113.675870">
        <ele>830.985</ele>
        <time>2018-12-28T12:13:22Z</time>
      </trkpt>
      <trkpt lat="36.976860" lon="-113.675660">
        <ele>832.113</ele>
        <time>2018-12-28T12:13:42Z</time>
      </trkpt>
      <trkpt lat="36.976940" lon="-113.675530">
        <ele>832.408</ele>
        <time>2018-12-28T12:14:02Z</time>
      </trkpt>
      <trkpt lat="36.977010" lon="-113.675430">
        <ele>832.630</ele>
        <time>2018-12-28T12:14:22Z</time>
      </trkpt>
      <trkpt lat="36.977070" lon="-113.675340">
        <ele>832.958</ele>
        <time>2018-12-28T12:14:42Z</time>
      </trkpt>
      <trkpt lat="36.977150" lon="-113.675240">
        <ele>832.973</ele>
        <time>2018-12-28T12:15:02Z</time>
      </trkpt>
      <trkpt lat="36.977250" lon="-113.675120">
        <ele>832.974</ele>
        <time>2018-12-28T12:15:22Z</time>
      </trkpt>
      <trkpt lat="36.977320" lon="-113.675040">
        <ele>833.158</ele>
        <time>2018-12-28T12:15:42Z</time>
      </trkpt>
      <trkpt lat="36.977470" lon="-113.674860">
        <ele>833.222</ele>
        <time>2018-12-28T12:16:02Z</time>
      </trkpt>
      <trkpt lat="36.977710" lon="-113.674590">
        <ele>835.541</ele>
        <time>2018-12-28T12:16:22Z</time>
      </trkpt>
      <trkpt lat="36.977900" lon="-113.674400">
        <ele>836.926</ele>
        <time>2018-12-28T12:16:42Z</time>
      </trkpt>
      <trkpt lat="36.978050" lon="-113.674230">
        <ele>838.245</ele>
        <time>2018-12-28T12:17:02Z</time>
      </trkpt>
      <trkpt lat="36.978190" lon="-113.674080">
        <ele>838.747</ele>
        <time>2018-12-28T12:17:22Z</time>
      </trkpt>
      <trkpt lat="36.978290" lon="-113.673970">
        <ele>839.611</ele>
        <time>2018-12-28T12:17:42Z</time>
      </trkpt>
      <trkpt lat="36.978370" lon="-113.673870">
        <ele>840.308</ele>
        <time>2018-12-28T12:18:02Z</time>
      </trkpt>
      <trkpt lat="36.978460" lon="-113.673760">
        <ele>838.877</ele>
        <time>2018-12-28T12:18:22Z</time>
      </trkpt>
      <trkpt lat="36.978530" lon="-113.673660">
        <ele>840.785</ele>
        <time>2018-12-28T12:18:42Z</time>
      </trkpt>
      <trkpt lat="36.978590" lon="-113.673580">
        <ele>841.270</ele>
        <time>2018-12-28T12:19:02Z</time>
      </trkpt>
      <trkpt lat="36.978670" lon="-113.673470">
        <ele>839.791</ele>
        <time>2018-12-28T12:19:22Z</time>
      </trkpt>
      <trkpt lat="36.978720" lon="-113.673390">
        <ele>837.695</ele>
        <time>2018-12-28T12:19:42Z</time>
      </trkpt>
      <trkpt lat="36.978790" lon="-113.673280">
        <ele>837.089</ele>
        <time>2018-12-28T12:20:02Z</time>
      </trkpt>
      <trkpt lat="36.978860" lon="-113.673170">
        <ele>837.858</ele>
        <time>2018-12-28T12:20:22Z</time>
      </trkpt>
      <trkpt lat="36.979000" lon="-113.672940">
        <ele>838.853</ele>
        <time>2018-12-28T12:20:42Z</time>
      </trkpt>
      <trkpt lat="36.979070" lon="-113.672820">
        <ele>839.567</ele>
        <time>2018-12-28T12:21:02Z</time>
      </trkpt>
      <trkpt lat="36.979150" lon="-113.672630">
        <ele>840.681</ele>
        <time>2018-12-28T12:21:22Z</time>
      </trkpt>
      <trkpt lat="36.979200" lon="-113.672530">
        <ele>840.719</ele>
        <time>2018-12-28T12:21:42Z</time>
      </trkpt>
      <trkpt lat="36.979270" lon="-113.672340">
        <ele>840.908</ele>
        <time>2018-12-28T12:22:02Z</time>
      </trkpt>
      <trkpt lat="36.979320" lon="-113.672230">
        <ele>840.939</ele>
        <time>2018-12-28T12:22:22Z</time>
      </trkpt>
      <trkpt lat="36.979360" lon="-113.672100">
        <ele>841.157</ele>
        <time>2018-12-28T12:22:42Z</time>
      </trkpt>
      <trkpt lat="36.979400" lon="-113.671970">
        <ele>841.272</ele>
        <time>2018-12-28T12:23:02Z</time>
      </trkpt>
      <trkpt lat="36.979440" lon="-113.671830">
        <ele>841.213</ele>
        <time>2018-12-28T12:23:22Z</time>
      </trkpt>
      <trkpt lat="36.979510" lon="-113.671570">
        <ele>841.187</ele>
        <time>2018-12-28T12:23:42Z</time>
      </trkpt>
      <trkpt lat="36.979530" lon="-113.671450">
        <ele>841.291</ele>
        <time>2018-12-28T12:24:02Z</time>
      </trkpt>
      <trkpt lat="36.979560" lon="-113.671310">
        <ele>841.360</ele>
        <time>2018-12-28T12:24:22Z</time>
      </trkpt>
      <trkpt lat="36.979590" lon="-113.671140">
        <ele>842.045</ele>
        <time>2018-12-28T12:24:42Z</time>
      </trkpt>
      <trkpt lat="36.979620" lon="-113.670930">
        <ele>843.139</ele>
        <time>2018-12-28T12:25:02Z</time>
      </trkpt>
      <trkpt lat="36.979630" lon="-113.670800">
        <ele>843.601</ele>
        <time>2018-12-28T12:25:22Z</time>
      </trkpt>
      <trkpt lat="36.979650" lon="-113.670530">
        <ele>844.221</ele>
        <time>2018-12-28T12:25:42Z</time>
      </trkpt>
      <trkpt lat="36.979660" lon="-113.670390">
        <ele>844.308</ele>
        <time>2018-12-28T12:26:02Z</time>
      </trkpt>
      <trkpt lat="36.979670" lon="-113.670240">
        <ele>844.416</ele>
        <time>2018-12-28T12:26:22Z</time>
      </trkpt>
      <trkpt lat="36.979660" lon="-113.670000">
        <ele>844.754</ele>
        <time>2018-12-28T12:26:42Z</time>
      </trkpt>
      <trkpt lat="36.979650" lon="-113.669680">
        <ele>845.189</ele>
        <time>2018-12-28T12:27:02Z</time>
      </trkpt>
      <trkpt lat="36.979630" lon="-113.669290">
        <ele>846.040</ele>
        <time>2018-12-28T12:27:22Z</time>
      </trkpt>
      <trkpt lat="36.979610" lon="-113.669030">
        <ele>846.544</ele>
        <time>2018-12-28T12:27:42Z</time>
      </trkpt>
      <trkpt lat="36.979590" lon="-113.668750">
        <ele>846.578</ele>
        <time>2018-12-28T12:28:02Z</time>
      </trkpt>
      <trkpt lat="36.979580" lon="-113.668590">
        <ele>846.547</ele>
        <time>2018-12-28T12:28:22Z</time>
      </trkpt>
      <trkpt lat="36.979560" lon="-113.668290">
        <ele>846.632</ele>
        <time>2018-12-28T12:28:42Z</time>
      </trkpt>
      <trkpt lat="36.979550" lon="-113.668040">
        <ele>846.599</ele>
        <time>2018-12-28T12:29:02Z</time>
      </trkpt>
      <trkpt lat="36.979530" lon="-113.667780">
        <ele>846.507</ele>
        <time>2018-12-28T12:29:22Z</time>
      </trkpt>
      <trkpt lat="36.979520" lon="-113.667650">
        <ele>846.627</ele>
        <time>2018-12-28T12:29:42Z</time>
      </trkpt>
      <trkpt lat="36.979490" lon="-113.667120">
        <ele>846.808</ele>
        <time>2018-12-28T12:30:02Z</time>
      </trkpt>
      <trkpt lat="36.979400" lon="-113.665650">
        <ele>849.522</ele>
        <time>2018-12-28T12:30:22Z</time>
      </trkpt>
      <trkpt lat="36.979340" lon="-113.664710">
        <ele>851.360</ele>
        <time>2018-12-28T12:30:42Z</time>
      </trkpt>
      <trkpt lat="36.979280" lon="-113.663770">
        <ele>852.395</ele>
        <time>2018-12-28T12:31:02Z</time>
      </trkpt>
      <trkpt lat="36.979250" lon="-113.663200">
        <ele>852.786</ele>
        <time>2018-12-28T12:31:22Z</time>
      </trkpt>
      <trkpt lat="36.979230" lon="-113.662800">
        <ele>852.940</ele>
        <time>2018-12-28T12:31:42Z</time>
      </trkpt>
      <trkpt lat="36.979200" lon="-113.662130">
        <ele>853.364</ele>
        <time>2018-12-28T12:32:02Z</time>
      </trkpt>
      <trkpt lat="36.979180" lon="-113.661440">
        <ele>853.983</ele>
        <time>2018-12-28T12:32:22Z</time>
      </trkpt>
      <trkpt lat="36.979180" lon="-113.661030">
        <ele>854.528</ele>
        <time>2018-12-28T12:32:42Z</time>
      </trkpt>
      <trkpt lat="36.979170" lon="-113.660480">
        <ele>854.819</ele>
        <time>2018-12-28T12:33:02Z</time>
      </trkpt>
      <trkpt lat="36.979170" lon="-113.660000">
        <ele>854.809</ele>
        <time>2018-12-28T12:33:22Z</time>
      </trkpt>
      <trkpt lat="36.979170" lon="-113.659670">
        <ele>855.019</ele>
        <time>2018-12-28T12:33:42Z</time>
      </trkpt>
      <trkpt lat="36.979190" lon="-113.658850">
        <ele>855.408</ele>
        <time>2018-12-28T12:34:02Z</time>
      </trkpt>
      <trkpt lat="36.979220" lon="-113.658180">
        <ele>855.914</ele>
        <time>2018-12-28T12:34:22Z</time>
      </trkpt>
      <trkpt lat="36.979260" lon="-113.657350">
        <ele>856.532</ele>
        <time>2018-12-28T12:34:42Z</time>
      </trkpt>
      <trkpt lat="36.979300" lon="-113.656670">
        <ele>857.577</ele>
        <time>2018-12-28T12:35:02Z</time>
      </trkpt>
      <trkpt lat="36.979370" lon="-113.655880">
        <ele>858.138</ele>
        <time>2018-12-28T12:35:22Z</time>
      </trkpt>
      <trkpt lat="36.979440" lon="-113.655230">
        <ele>858.232</ele>
        <time>2018-12-28T12:35:42Z</time>
      </trkpt>
      <trkpt lat="36.979560" lon="-113.654160">
        <ele>858.936</ele>
        <time>2018-12-28T12:36:02Z</time>
      </trkpt>
      <trkpt lat="36.979650" lon="-113.653510">
        <ele>858.495</ele>
        <time>2018-12-28T12:36:22Z</time>
      </trkpt>
      <trkpt lat="36.979750" lon="-113.652860">
        <ele>857.780</ele>
        <time>2018-12-28T12:36:42Z</time>
      </trkpt>
      <trkpt lat="36.979830" lon="-113.652330">
        <ele>857.788</ele>
        <time>2018-12-28T12:37:02Z</time>
      </trkpt>
      <trkpt lat="36.979960" lon="-113.651580">
        <ele>856.824</ele>
        <time>2018-12-28T12:37:22Z</time>
      </trkpt>
      <trkpt lat="36.980040" lon="-113.651180">
        <ele>856.326</ele>
        <time>2018-12-28T12:37:42Z</time>
      </trkpt>
      <trkpt lat="36.980190" lon="-113.650420">
        <ele>855.708</ele>
        <time>2018-12-28T12:38:02Z</time>
      </trkpt>
      <trkpt lat="36.980360" lon="-113.649660">
        <ele>856.051</ele>
        <time>2018-12-28T12:38:22Z</time>
      </trkpt>
      <trkpt lat="36.980450" lon="-113.649290">
        <ele>856.119</ele>
        <time>2018-12-28T12:38:42Z</time>
      </trkpt>
      <trkpt lat="36.980630" lon="-113.648530">
        <ele>856.014</ele>
        <time>2018-12-28T12:39:02Z</time>
      </trkpt>
      <trkpt lat="36.980840" lon="-113.647740">
        <ele>855.865</ele>
        <time>2018-12-28T12:39:22Z</time>
      </trkpt>
      <trkpt lat="36.980980" lon="-113.647240">
        <ele>855.279</ele>
        <time>2018-12-28T12:39:42Z</time>
      </trkpt>
      <trkpt lat="36.981120" lon="-113.646750">
        <ele>854.933</ele>
        <time>2018-12-28T12:40:02Z</time>
      </trkpt>
      <trkpt lat="36.981280" lon="-113.646250">
        <ele>854.852</ele>
        <time>2018-12-28T12:40:22Z</time>
      </trkpt>
      <trkpt lat="36.981430" lon="-113.645750">
        <ele>854.897</ele>
        <time>2018-12-28T12:40:42Z</time>
      </trkpt>
      <trkpt lat="36.981560" lon="-113.645380">
        <ele>854.677</ele>
        <time>2018-12-28T12:41:02Z</time>
      </trkpt>
      <trkpt lat="36.981590" lon="-113.645260">
        <ele>854.661</ele>
        <time>2018-12-28T12:41:22Z</time>
      </trkpt>
      <trkpt lat="36.981670" lon="-113.645020">
        <ele>854.327</ele>
        <time>2018-12-28T12:41:42Z</time>
      </trkpt>
      <trkpt lat="36.981840" lon="-113.644540">
        <ele>853.908</ele>
        <time>2018-12-28T12:42:02Z</time>
      </trkpt>
      <trkpt lat="36.982020" lon="-113.644050">
        <ele>853.780</ele>
        <time>2018-12-28T12:42:22Z</time>
      </trkpt>
      <trkpt lat="36.982110" lon="-113.643800">
        <ele>853.438</ele>
        <time>2018-12-28T12:42:42Z</time>
      </trkpt>
      <trkpt lat="36.982240" lon="-113.643450">
        <ele>853.153</ele>
        <time>2018-12-28T12:43:02Z</time>
      </trkpt>
      <trkpt lat="36.982560" lon="-113.642610">
        <ele>852.884</ele>
        <time>2018-12-28T12:43:22Z</time>
      </trkpt>
      <trkpt lat="36.982980" lon="-113.641530">
        <ele>852.088</ele>
        <time>2018-12-28T12:43:42Z</time>
      </trkpt>
      <trkpt lat="36.983180" lon="-113.641020">
        <ele>852.542</ele>
        <time>2018-12-28T12:44:02Z</time>
      </trkpt>
      <trkpt lat="36.984010" lon="-113.638920">
        <ele>853.591</ele>
        <time>2018-12-28T12:44:22Z</time>
      </trkpt>
      <trkpt lat="36.984290" lon="-113.638190">
        <ele>852.916</ele>
        <time>2018-12-28T12:44:42Z</time>
      </trkpt>
      <trkpt lat="36.984460" lon="-113.637710">
        <ele>852.634</ele>
        <time>2018-12-28T12:45:02Z</time>
      </trkpt>
      <trkpt lat="36.985200" lon="-113.635800">
        <ele>852.255</ele>
        <time>2018-12-28T12:45:22Z</time>
      </trkpt>
      <trkpt lat="36.985430" lon="-113.635200">
        <ele>852.310</ele>
        <time>2018-12-28T12:45:42Z</time>
      </trkpt>
      <trkpt lat="36.985620" lon="-113.634730">
        <ele>852.608</ele>
        <time>2018-12-28T12:46:02Z</time>
      </trkpt>
      <trkpt lat="36.985940" lon="-113.633920">
        <ele>852.526</ele>
        <time>2018-12-28T12:46:22Z</time>
      </trkpt>
      <trkpt lat="36.986170" lon="-113.633300">
        <ele>852.384</ele>
        <time>2018-12-28T12:46:42Z</time>
      </trkpt>
      <trkpt lat="36.986270" lon="-113.633060">
        <ele>852.319</ele>
        <time>2018-12-28T12:47:02Z</time>
      </trkpt>
      <trkpt lat="36.986550" lon="-113.632340">
        <ele>852.630</ele>
        <time>2018-12-28T12:47:22Z</time>
      </trkpt>
      <trkpt lat="36.986730" lon="-113.631870">
        <ele>852.424</ele>
        <time>2018-12-28T12:47:42Z</time>
      </trkpt>
      <trkpt lat="36.986970" lon="-113.631260">
        <ele>852.068</ele>
        <time>2018-12-28T12:48:02Z</time>
      </trkpt>
      <trkpt lat="36.987160" lon="-113.630780">
        <ele>851.037</ele>
        <time>2018-12-28T12:48:22Z</time>
      </trkpt>
      <trkpt lat="36.987310" lon="-113.630420">
        <ele>850.122</ele>
        <time>2018-12-28T12:48:42Z</time>
      </trkpt>
      <trkpt lat="36.987460" lon="-113.630070">
        <ele>848.991</ele>
        <time>2018-12-28T12:49:02Z</time>
      </trkpt>
      <trkpt lat="36.987620" lon="-113.629720">
        <ele>847.981</ele>
        <time>2018-12-28T12:49:22Z</time>
      </trkpt>
      <trkpt lat="36.987730" lon="-113.629500">
        <ele>847.319</ele>
        <time>2018-12-28T12:49:42Z</time>
      </trkpt>
      <trkpt lat="36.987900" lon="-113.629180">
        <ele>846.808</ele>
        <time>2018-12-28T12:50:02Z</time>
      </trkpt>
      <trkpt lat="36.988020" lon="-113.628960">
        <ele>846.562</ele>
        <time>2018-12-28T12:50:22Z</time>
      </trkpt>
      <trkpt lat="36.988200" lon="-113.628640">
        <ele>846.120</ele>
        <time>2018-12-28T12:50:42Z</time>
      </trkpt>
      <trkpt lat="36.988330" lon="-113.628430">
        <ele>845.865</ele>
        <time>2018-12-28T12:51:02Z</time>
      </trkpt>
      <trkpt lat="36.988610" lon="-113.628010">
        <ele>845.186</ele>
        <time>2018-12-28T12:51:22Z</time>
      </trkpt>
      <trkpt lat="36.988770" lon="-113.627790">
        <ele>845.120</ele>
        <time>2018-12-28T12:51:42Z</time>
      </trkpt>
      <trkpt lat="36.988960" lon="-113.627530">
        <ele>845.674</ele>
        <time>2018-12-28T12:52:02Z</time>
      </trkpt>
      <trkpt lat="36.989190" lon="-113.627240">
        <ele>846.853</ele>
        <time>2018-12-28T12:52:22Z</time>
      </trkpt>
      <trkpt lat="36.989410" lon="-113.626970">
        <ele>847.638</ele>
        <time>2018-12-28T12:52:42Z</time>
      </trkpt>
      <trkpt lat="36.989570" lon="-113.626790">
        <ele>847.553</ele>
        <time>2018-12-28T12:53:02Z</time>
      </trkpt>
      <trkpt lat="36.989720" lon="-113.626630">
        <ele>847.904</ele>
        <time>2018-12-28T12:53:22Z</time>
      </trkpt>
      <trkpt lat="36.989820" lon="-113.626540">
        <ele>848.114</ele>
        <time>2018-12-28T12:53:42Z</time>
      </trkpt>
      <trkpt lat="36.989950" lon="-113.626400">
        <ele>848.908</ele>
        <time>2018-12-28T12:54:02Z</time>
      </trkpt>
      <trkpt lat="36.990140" lon="-113.626220">
        <ele>850.278</ele>
        <time>2018-12-28T12:54:22Z</time>
      </trkpt>
      <trkpt lat="36.990280" lon="-113.626080">
        <ele>851.036</ele>
        <time>2018-12-28T12:54:42Z</time>
      </trkpt>
      <trkpt lat="36.990420" lon="-113.625960">
        <ele>851.791</ele>
        <time>2018-12-28T12:55:02Z</time>
      </trkpt>
      <trkpt lat="36.990590" lon="-113.625800">
        <ele>852.382</ele>
        <time>2018-12-28T12:55:22Z</time>
      </trkpt>
      <trkpt lat="36.990770" lon="-113.625650">
        <ele>852.596</ele>
        <time>2018-12-28T12:55:42Z</time>
      </trkpt>
      <trkpt lat="36.990950" lon="-113.625510">
        <ele>852.720</ele>
        <time>2018-12-28T12:56:02Z</time>
      </trkpt>
      <trkpt lat="36.991130" lon="-113.625370">
        <ele>853.159</ele>
        <time>2018-12-28T12:56:22Z</time>
      </trkpt>
      <trkpt lat="36.991260" lon="-113.625270">
        <ele>853.734</ele>
        <time>2018-12-28T12:56:42Z</time>
      </trkpt>
      <trkpt lat="36.991400" lon="-113.625170">
        <ele>853.388</ele>
        <time>2018-12-28T12:57:02Z</time>
      </trkpt>
      <trkpt lat="36.991690" lon="-113.624970">
        <ele>852.824</ele>
        <time>2018-12-28T12:57:22Z</time>
      </trkpt>
      <trkpt lat="36.991900" lon="-113.624830">
        <ele>852.226</ele>
        <time>2018-12-28T12:57:42Z</time>
      </trkpt>
      <trkpt lat="36.992070" lon="-113.624730">
        <ele>852.308</ele>
        <time>2018-12-28T12:58:02Z</time>
      </trkpt>
      <trkpt lat="36.992280" lon="-113.624610">
        <ele>851.981</ele>
        <time>2018-12-28T12:58:22Z</time>
      </trkpt>
      <trkpt lat="36.992430" lon="-113.624530">
        <ele>851.569</ele>
        <time>2018-12-28T12:58:42Z</time>
      </trkpt>
      <trkpt lat="36.992570" lon="-113.624450">
        <ele>851.344</ele>
        <time>2018-12-28T12:59:02Z</time>
      </trkpt>
      <trkpt lat="36.992720" lon="-113.624370">
        <ele>850.855</ele>
        <time>2018-12-28T12:59:22Z</time>
      </trkpt>
      <trkpt lat="36.992870" lon="-113.624310">
        <ele>850.239</ele>
        <time>2018-12-28T12:59:42Z</time>
      </trkpt>
      <trkpt lat="36.993040" lon="-113.624220">
        <ele>849.043</ele>
        <time>2018-12-28T13:00:02Z</time>
      </trkpt>
      <trkpt lat="36.993210" lon="-113.624150">
        <ele>847.612</ele>
        <time>2018-12-28T13:00:22Z</time>
      </trkpt>
      <trkpt lat="36.993310" lon="-113.624100">
        <ele>846.627</ele>
        <time>2018-12-28T13:00:42Z</time>
      </trkpt>
      <trkpt lat="36.993430" lon="-113.624060">
        <ele>845.535</ele>
        <time>2018-12-28T13:01:02Z</time>
      </trkpt>
      <trkpt lat="36.993630" lon="-113.623980">
        <ele>845.486</ele>
        <time>2018-12-28T13:01:22Z</time>
      </trkpt>
      <trkpt lat="36.993840" lon="-113.623910">
        <ele>846.014</ele>
        <time>2018-12-28T13:01:42Z</time>
      </trkpt>
      <trkpt lat="36.994060" lon="-113.623840">
        <ele>846.208</ele>
        <time>2018-12-28T13:02:02Z</time>
      </trkpt>
      <trkpt lat="36.994240" lon="-113.623790">
        <ele>846.266</ele>
        <time>2018-12-28T13:02:22Z</time>
      </trkpt>
      <trkpt lat="36.994360" lon="-113.623750">
        <ele>846.284</ele>
        <time>2018-12-28T13:02:42Z</time>
      </trkpt>
      <trkpt lat="36.994570" lon="-113.623700">
        <ele>846.839</ele>
        <time>2018-12-28T13:03:02Z</time>
      </trkpt>
      <trkpt lat="36.994790" lon="-113.623650">
        <ele>846.220</ele>
        <time>2018-12-28T13:03:22Z</time>
      </trkpt>
      <trkpt lat="36.995120" lon="-113.623580">
        <ele>844.734</ele>
        <time>2018-12-28T13:03:42Z</time>
      </trkpt>
      <trkpt lat="36.995320" lon="-113.623540">
        <ele>844.338</ele>
        <time>2018-12-28T13:04:02Z</time>
      </trkpt>
      <trkpt lat="36.995550" lon="-113.623510">
        <ele>844.117</ele>
        <time>2018-12-28T13:04:22Z</time>
      </trkpt>
      <trkpt lat="36.995770" lon="-113.623480">
        <ele>843.962</ele>
        <time>2018-12-28T13:04:42Z</time>
      </trkpt>
      <trkpt lat="36.996420" lon="-113.623400">
        <ele>842.469</ele>
        <time>2018-12-28T13:05:02Z</time>
      </trkpt>
      <trkpt lat="36.996840" lon="-113.623350">
        <ele>841.604</ele>
        <time>2018-12-28T13:05:22Z</time>
      </trkpt>
      <trkpt lat="36.997160" lon="-113.623300">
        <ele>841.424</ele>
        <time>2018-12-28T13:05:42Z</time>
      </trkpt>
      <trkpt lat="36.997480" lon="-113.623240">
        <ele>841.508</ele>
        <time>2018-12-28T13:06:02Z</time>
      </trkpt>
      <trkpt lat="36.997790" lon="-113.623170">
        <ele>841.929</ele>
        <time>2018-12-28T13:06:22Z</time>
      </trkpt>
      <trkpt lat="36.998030" lon="-113.623120">
        <ele>842.397</ele>
        <time>2018-12-28T13:06:42Z</time>
      </trkpt>
      <trkpt lat="36.998260" lon="-113.623060">
        <ele>842.792</ele>
        <time>2018-12-28T13:07:02Z</time>
      </trkpt>
      <trkpt lat="36.998420" lon="-113.623020">
        <ele>842.443</ele>
        <time>2018-12-28T13:07:22Z</time>
      </trkpt>
      <trkpt lat="36.998670" lon="-113.622950">
        <ele>842.287</ele>
        <time>2018-12-28T13:07:42Z</time>
      </trkpt>
      <trkpt lat="36.998890" lon="-113.622880">
        <ele>841.211</ele>
        <time>2018-12-28T13:08:02Z</time>
      </trkpt>
      <trkpt lat="36.999080" lon="-113.622820">
        <ele>841.560</ele>
        <time>2018-12-28T13:08:22Z</time>
      </trkpt>
      <trkpt lat="36.999240" lon="-113.622770">
        <ele>841.745</ele>
        <time>2018-12-28T13:08:42Z</time>
      </trkpt>
      <trkpt lat="36.999450" lon="-113.622690">
        <ele>841.919</ele>
        <time>2018-12-28T13:09:02Z</time>
      </trkpt>
      <trkpt lat="36.999750" lon="-113.622580">
        <ele>839.909</ele>
        <time>2018-12-28T13:09:22Z</time>
      </trkpt>
      <trkpt lat="36.999910" lon="-113.622520">
        <ele>839.619</ele>
        <time>2018-12-28T13:09:42Z</time>
      </trkpt>
      <trkpt lat="37.000100" lon="-113.622440">
        <ele>839.708</ele>
        <time>2018-12-28T13:10:02Z</time>
      </trkpt>
      <trkpt lat="37.000300" lon="-113.622350">
        <ele>836.884</ele>
        <time>2018-12-28T13:10:22Z</time>
      </trkpt>
      <trkpt lat="37.000530" lon="-113.622250">
        <ele>835.112</ele>
        <time>2018-12-28T13:10:42Z</time>
      </trkpt>
      <trkpt lat="37.000710" lon="-113.622160">
        <ele>834.347</ele>
        <time>2018-12-28T13:11:02Z</time>
      </trkpt>
      <trkpt lat="37.000830" lon="-113.622100">
        <ele>833.698</ele>
        <time>2018-12-28T13:11:22Z</time>
      </trkpt>
      <trkpt lat="37.001240" lon="-113.621890">
        <ele>832.392</ele>
        <time>2018-12-28T13:11:42Z</time>
      </trkpt>
      <trkpt lat="37.001480" lon="-113.621750">
        <ele>831.666</ele>
        <time>2018-12-28T13:12:02Z</time>
      </trkpt>
      <trkpt lat="37.001740" lon="-113.621600">
        <ele>830.575</ele>
        <time>2018-12-28T13:12:22Z</time>
      </trkpt>
      <trkpt lat="37.002020" lon="-113.621430">
        <ele>828.940</ele>
        <time>2018-12-28T13:12:42Z</time>
      </trkpt>
      <trkpt lat="37.002410" lon="-113.621180">
        <ele>826.946</ele>
        <time>2018-12-28T13:13:02Z</time>
      </trkpt>
      <trkpt lat="37.002840" lon="-113.620910">
        <ele>826.488</ele>
        <time>2018-12-28T13:13:22Z</time>
      </trkpt>
      <trkpt lat="37.003090" lon="-113.620750">
        <ele>826.216</ele>
        <time>2018-12-28T13:13:42Z</time>
      </trkpt>
      <trkpt lat="37.003290" lon="-113.620620">
        <ele>825.808</ele>
        <time>2018-12-28T13:14:02Z</time>
      </trkpt>
      <trkpt lat="37.004140" lon="-113.620080">
        <ele>823.177</ele>
        <time>2018-12-28T13:14:22Z</time>
      </trkpt>
      <trkpt lat="37.004670" lon="-113.619730">
        <ele>820.875</ele>
        <time>2018-12-28T13:14:42Z</time>
      </trkpt>
      <trkpt lat="37.004960" lon="-113.619550">
        <ele>819.620</ele>
        <time>2018-12-28T13:15:02Z</time>
      </trkpt>
      <trkpt lat="37.005240" lon="-113.619370">
        <ele>819.431</ele>
        <time>2018-12-28T13:15:22Z</time>
      </trkpt>
      <trkpt lat="37.005540" lon="-113.619180">
        <ele>818.925</ele>
        <time>2018-12-28T13:15:42Z</time>
      </trkpt>
      <trkpt lat="37.005850" lon="-113.618980">
        <ele>818.639</ele>
        <time>2018-12-28T13:16:02Z</time>
      </trkpt>
      <trkpt lat="37.006530" lon="-113.618540">
        <ele>818.658</ele>
        <time>2018-12-28T13:16:22Z</time>
      </trkpt>
      <trkpt lat="37.008020" lon="-113.617580">
        <ele>814.433</ele>
        <time>2018-12-28T13:16:42Z</time>
      </trkpt>
      <trkpt lat="37.008800" lon="-113.617080">
        <ele>812.894</ele>
        <time>2018-12-28T13:17:02Z</time>
      </trkpt>
      <trkpt lat="37.009580" lon="-113.616570">
        <ele>812.157</ele>
        <time>2018-12-28T13:17:22Z</time>
      </trkpt>
      <trkpt lat="37.010550" lon="-113.615950">
        <ele>812.622</ele>
        <time>2018-12-28T13:17:42Z</time>
      </trkpt>
      <trkpt lat="37.011090" lon="-113.615590">
        <ele>814.008</ele>
        <time>2018-12-28T13:18:02Z</time>
      </trkpt>
      <trkpt lat="37.011630" lon="-113.615270">
        <ele>811.352</ele>
        <time>2018-12-28T13:18:22Z</time>
      </trkpt>
      <trkpt lat="37.012320" lon="-113.614820">
        <ele>810.620</ele>
        <time>2018-12-28T13:18:42Z</time>
      </trkpt>
      <trkpt lat="37.013010" lon="-113.614380">
        <ele>810.115</ele>
        <time>2018-12-28T13:19:02Z</time>
      </trkpt>
      <trkpt lat="37.014920" lon="-113.613150">
        <ele>807.736</ele>
        <time>2018-12-28T13:19:22Z</time>
      </trkpt>
      <trkpt lat="37.016830" lon="-113.611920">
        <ele>804.620</ele>
        <time>2018-12-28T13:19:42Z</time>
      </trkpt>
      <trkpt lat="37.017420" lon="-113.611540">
        <ele>803.094</ele>
        <time>2018-12-28T13:20:02Z</time>
      </trkpt>
      <trkpt lat="37.018090" lon="-113.611110">
        <ele>801.143</ele>
        <time>2018-12-28T13:20:22Z</time>
      </trkpt>
      <trkpt lat="37.019080" lon="-113.610470">
        <ele>796.718</ele>
        <time>2018-12-28T13:20:42Z</time>
      </trkpt>
      <trkpt lat="37.020020" lon="-113.609870">
        <ele>792.174</ele>
        <time>2018-12-28T13:21:02Z</time>
      </trkpt>
      <trkpt lat="37.020040" lon="-113.609850">
        <ele>792.156</ele>
        <time>2018-12-28T13:21:22Z</time>
      </trkpt>
      <trkpt lat="37.020570" lon="-113.609490">
        <ele>791.821</ele>
        <time>2018-12-28T13:21:42Z</time>
      </trkpt>
      <trkpt lat="37.021380" lon="-113.608970">
        <ele>786.108</ele>
        <time>2018-12-28T13:22:02Z</time>
      </trkpt>
      <trkpt lat="37.021620" lon="-113.608820">
        <ele>782.070</ele>
        <time>2018-12-28T13:22:22Z</time>
      </trkpt>
      <trkpt lat="37.021650" lon="-113.608810">
        <ele>781.718</ele>
        <time>2018-12-28T13:22:42Z</time>
      </trkpt>
      <trkpt lat="37.021660" lon="-113.608800">
        <ele>781.663</ele>
        <time>2018-12-28T13:23:02Z</time>
      </trkpt>
      <trkpt lat="37.021870" lon="-113.608680">
        <ele>781.214</ele>
        <time>2018-12-28T13:23:22Z</time>
      </trkpt>
      <trkpt lat="37.022990" lon="-113.607940">
        <ele>782.238</ele>
        <time>2018-12-28T13:23:42Z</time>
      </trkpt>
      <trkpt lat="37.023380" lon="-113.607680">
        <ele>782.412</ele>
        <time>2018-12-28T13:24:02Z</time>
      </trkpt>
      <trkpt lat="37.023770" lon="-113.607450">
        <ele>782.951</ele>
        <time>2018-12-28T13:24:22Z</time>
      </trkpt>
      <trkpt lat="37.024470" lon="-113.607000">
        <ele>783.756</ele>
        <time>2018-12-28T13:24:42Z</time>
      </trkpt>
      <trkpt lat="37.025160" lon="-113.606560">
        <ele>784.821</ele>
        <time>2018-12-28T13:25:02Z</time>
      </trkpt>
      <trkpt lat="37.025840" lon="-113.606120">
        <ele>784.741</ele>
        <time>2018-12-28T13:25:22Z</time>
      </trkpt>
      <trkpt lat="37.026420" lon="-113.605740">
        <ele>785.105</ele>
        <time>2018-12-28T13:25:42Z</time>
      </trkpt>
      <trkpt lat="37.027030" lon="-113.605340">
        <ele>785.408</ele>
        <time>2018-12-28T13:26:02Z</time>
      </trkpt>
      <trkpt lat="37.027500" lon="-113.605030">
        <ele>785.615</ele>
        <time>2018-12-28T13:26:22Z</time>
      </trkpt>
      <trkpt lat="37.027520" lon="-113.605020">
        <ele>785.623</ele>
        <time>2018-12-28T13:26:42Z</time>
      </trkpt>
      <trkpt lat="37.027560" lon="-113.604990">
        <ele>785.668</ele>
        <time>2018-12-28T13:27:02Z</time>
      </trkpt>
      <trkpt lat="37.027710" lon="-113.604890">
        <ele>785.719</ele>
        <time>2018-12-28T13:27:22Z</time>
      </trkpt>
      <trkpt lat="37.027760" lon="-113.604860">
        <ele>785.783</ele>
        <time>2018-12-28T13:27:42Z</time>
      </trkpt>
      <trkpt lat="37.027970" lon="-113.604740">
        <ele>785.867</ele>
        <time>2018-12-28T13:28:02Z</time>
      </trkpt>
      <trkpt lat="37.028290" lon="-113.604530">
        <ele>785.976</ele>
        <time>2018-12-28T13:28:22Z</time>
      </trkpt>
      <trkpt lat="37.028750" lon="-113.604230">
        <ele>786.491</ele>
        <time>2018-12-28T13:28:42Z</time>
      </trkpt>
      <trkpt lat="37.030170" lon="-113.603310">
        <ele>787.939</ele>
        <time>2018-12-28T13:29:02Z</time>
      </trkpt>
      <trkpt lat="37.031430" lon="-113.602500">
        <ele>788.101</ele>
        <time>2018-12-28T13:29:22Z</time>
      </trkpt>
      <trkpt lat="37.031590" lon="-113.602390">
        <ele>787.521</ele>
        <time>2018-12-28T13:29:42Z</time>
      </trkpt>
      <trkpt lat="37.031730" lon="-113.602280">
        <ele>787.308</ele>
        <time>2018-12-28T13:30:02Z</time>
      </trkpt>
      <trkpt lat="37.031930" lon="-113.602150">
        <ele>787.216</ele>
        <time>2018-12-28T13:30:22Z</time>
      </trkpt>
      <trkpt lat="37.032400" lon="-113.601840">
        <ele>787.074</ele>
        <time>2018-12-28T13:30:42Z</time>
      </trkpt>
      <trkpt lat="37.033110" lon="-113.601400">
        <ele>786.119</ele>
        <time>2018-12-28T13:31:02Z</time>
      </trkpt>
      <trkpt lat="37.033440" lon="-113.601190">
        <ele>785.160</ele>
        <time>2018-12-28T13:31:22Z</time>
      </trkpt>
      <trkpt lat="37.034180" lon="-113.600700">
        <ele>782.814</ele>
        <time>2018-12-28T13:31:42Z</time>
      </trkpt>
      <trkpt lat="37.035270" lon="-113.600010">
        <ele>781.058</ele>
        <time>2018-12-28T13:32:02Z</time>
      </trkpt>
      <trkpt lat="37.035670" lon="-113.599760">
        <ele>779.027</ele>
        <time>2018-12-28T13:32:22Z</time>
      </trkpt>
      <trkpt lat="37.036030" lon="-113.599520">
        <ele>778.662</ele>
        <time>2018-12-28T13:32:42Z</time>
      </trkpt>
      <trkpt lat="37.036540" lon="-113.599190">
        <ele>779.212</ele>
        <time>2018-12-28T13:33:02Z</time>
      </trkpt>
      <trkpt lat="37.036900" lon="-113.598950">
        <ele>779.632</ele>
        <time>2018-12-28T13:33:22Z</time>
      </trkpt>
      <trkpt lat="37.037040" lon="-113.598850">
        <ele>779.705</ele>
        <time>2018-12-28T13:33:42Z</time>
      </trkpt>
      <trkpt lat="37.037190" lon="-113.598740">
        <ele>779.708</ele>
        <time>2018-12-28T13:34:02Z</time>
      </trkpt>
      <trkpt lat="37.037430" lon="-113.598550">
        <ele>780.044</ele>
        <time>2018-12-28T13:34:22Z</time>
      </trkpt>
      <trkpt lat="37.037680" lon="-113.598350">
        <ele>780.562</ele>
        <time>2018-12-28T13:34:42Z</time>
      </trkpt>
      <trkpt lat="37.037790" lon="-113.598260">
        <ele>780.577</ele>
        <time>2018-12-28T13:35:02Z</time>
      </trkpt>
      <trkpt lat="37.038110" lon="-113.597990">
        <ele>780.918</ele>
        <time>2018-12-28T13:35:22Z</time>
      </trkpt>
      <trkpt lat="37.038210" lon="-113.597920">
        <ele>779.952</ele>
        <time>2018-12-28T13:35:42Z</time>
      </trkpt>
      <trkpt lat="37.038390" lon="-113.597760">
        <ele>780.966</ele>
        <time>2018-12-28T13:36:02Z</time>
      </trkpt>
      <trkpt lat="37.038650" lon="-113.597530">
        <ele>779.975</ele>
        <time>2018-12-28T13:36:22Z</time>
      </trkpt>
      <trkpt lat="37.038740" lon="-113.597440">
        <ele>779.550</ele>
        <time>2018-12-28T13:36:42Z</time>
      </trkpt>
      <trkpt lat="37.039060" lon="-113.597120">
        <ele>778.119</ele>
        <time>2018-12-28T13:37:02Z</time>
      </trkpt>
      <trkpt lat="37.039590" lon="-113.596570">
        <ele>779.009</ele>
        <time>2018-12-28T13:37:22Z</time>
      </trkpt>
      <trkpt lat="37.040170" lon="-113.595940">
        <ele>777.719</ele>
        <time>2018-12-28T13:37:42Z</time>
      </trkpt>
      <trkpt lat="37.040710" lon="-113.595360">
        <ele>775.708</ele>
        <time>2018-12-28T13:38:02Z</time>
      </trkpt>
      <trkpt lat="37.041420" lon="-113.594590">
        <ele>775.134</ele>
        <time>2018-12-28T13:38:22Z</time>
      </trkpt>
      <trkpt lat="37.041570" lon="-113.594410">
        <ele>775.172</ele>
        <time>2018-12-28T13:38:42Z</time>
      </trkpt>
      <trkpt lat="37.041910" lon="-113.594040">
        <ele>775.157</ele>
        <time>2018-12-28T13:39:02Z</time>
      </trkpt>
      <trkpt lat="37.042160" lon="-113.593770">
        <ele>775.268</ele>
        <time>2018-12-28T13:39:22Z</time>
      </trkpt>
      <trkpt lat="37.042490" lon="-113.593410">
        <ele>775.122</ele>
        <time>2018-12-28T13:39:42Z</time>
      </trkpt>
      <trkpt lat="37.042830" lon="-113.593040">
        <ele>775.136</ele>
        <time>2018-12-28T13:40:02Z</time>
      </trkpt>
      <trkpt lat="37.043230" lon="-113.592620">
        <ele>775.155</ele>
        <time>2018-12-28T13:40:22Z</time>
      </trkpt>
      <trkpt lat="37.043410" lon="-113.592430">
        <ele>775.170</ele>
        <time>2018-12-28T13:40:42Z</time>
      </trkpt>
      <trkpt lat="37.043590" lon="-113.592260">
        <ele>775.213</ele>
        <time>2018-12-28T13:41:02Z</time>
      </trkpt>
      <trkpt lat="37.043960" lon="-113.591900">
        <ele>775.243</ele>
        <time>2018-12-28T13:41:22Z</time>
      </trkpt>
      <trkpt lat="37.044200" lon="-113.591680">
        <ele>775.507</ele>
        <time>2018-12-28T13:41:42Z</time>
      </trkpt>
      <trkpt lat="37.044350" lon="-113.591550">
        <ele>775.808</ele>
        <time>2018-12-28T13:42:02Z</time>
      </trkpt>
      <trkpt lat="37.044560" lon="-113.591360">
        <ele>776.724</ele>
        <time>2018-12-28T13:42:22Z</time>
      </trkpt>
      <trkpt lat="37.044860" lon="-113.591120">
        <ele>779.282</ele>
        <time>2018-12-28T13:42:42Z</time>
      </trkpt>
      <trkpt lat="37.045120" lon="-113.590920">
        <ele>780.567</ele>
        <time>2018-12-28T13:43:02Z</time>
      </trkpt>
      <trkpt lat="37.045490" lon="-113.590640">
        <ele>781.748</ele>
        <time>2018-12-28T13:43:22Z</time>
      </trkpt>
      <trkpt lat="37.045880" lon="-113.590360">
        <ele>784.882</ele>
        <time>2018-12-28T13:43:42Z</time>
      </trkpt>
      <trkpt lat="37.046070" lon="-113.590240">
        <ele>786.076</ele>
        <time>2018-12-28T13:44:02Z</time>
      </trkpt>
      <trkpt lat="37.046370" lon="-113.590050">
        <ele>786.975</ele>
        <time>2018-12-28T13:44:22Z</time>
      </trkpt>
      <trkpt lat="37.046870" lon="-113.589750">
        <ele>786.970</ele>
        <time>2018-12-28T13:44:42Z</time>
      </trkpt>
      <trkpt lat="37.047170" lon="-113.589580">
        <ele>786.322</ele>
        <time>2018-12-28T13:45:02Z</time>
      </trkpt>
      <trkpt lat="37.047570" lon="-113.589380">
        <ele>786.462</ele>
        <time>2018-12-28T13:45:22Z</time>
      </trkpt>
      <trkpt lat="37.047900" lon="-113.589220">
        <ele>786.508</ele>
        <time>2018-12-28T13:45:42Z</time>
      </trkpt>
      <trkpt lat="37.048190" lon="-113.589090">
        <ele>786.308</ele>
        <time>2018-12-28T13:46:02Z</time>
      </trkpt>
      <trkpt lat="37.048610" lon="-113.588910">
        <ele>786.535</ele>
        <time>2018-12-28T13:46:22Z</time>
      </trkpt>
      <trkpt lat="37.049140" lon="-113.588720">
        <ele>786.293</ele>
        <time>2018-12-28T13:46:42Z</time>
      </trkpt>
      <trkpt lat="37.049460" lon="-113.588610">
        <ele>786.268</ele>
        <time>2018-12-28T13:47:02Z</time>
      </trkpt>
      <trkpt lat="37.049670" lon="-113.588540">
        <ele>786.379</ele>
        <time>2018-12-28T13:47:22Z</time>
      </trkpt>
      <trkpt lat="37.050100" lon="-113.588420">
        <ele>786.663</ele>
        <time>2018-12-28T13:47:42Z</time>
      </trkpt>
      <trkpt lat="37.050430" lon="-113.588340">
        <ele>786.277</ele>
        <time>2018-12-28T13:48:02Z</time>
      </trkpt>
      <trkpt lat="37.050680" lon="-113.588270">
        <ele>785.746</ele>
        <time>2018-12-28T13:48:22Z</time>
      </trkpt>
      <trkpt lat="37.050860" lon="-113.588240">
        <ele>786.081</ele>
        <time>2018-12-28T13:48:42Z</time>
      </trkpt>
      <trkpt lat="37.051400" lon="-113.588120">
        <ele>787.561</ele>
        <time>2018-12-28T13:49:02Z</time>
      </trkpt>
      <trkpt lat="37.051940" lon="-113.588010">
        <ele>787.821</ele>
        <time>2018-12-28T13:49:22Z</time>
      </trkpt>
      <trkpt lat="37.052490" lon="-113.587900">
        <ele>787.213</ele>
        <time>2018-12-28T13:49:42Z</time>
      </trkpt>
      <trkpt lat="37.053030" lon="-113.587780">
        <ele>787.308</ele>
        <time>2018-12-28T13:50:02Z</time>
      </trkpt>
      <trkpt lat="37.053900" lon="-113.587600">
        <ele>787.459</ele>
        <time>2018-12-28T13:50:22Z</time>
      </trkpt>
      <trkpt lat="37.054550" lon="-113.587460">
        <ele>789.037</ele>
        <time>2018-12-28T13:50:42Z</time>
      </trkpt>
      <trkpt lat="37.054870" lon="-113.587380">
        <ele>790.122</ele>
        <time>2018-12-28T13:51:02Z</time>
      </trkpt>
      <trkpt lat="37.054990" lon="-113.587350">
        <ele>790.493</ele>
        <time>2018-12-28T13:51:22Z</time>
      </trkpt>
      <trkpt lat="37.055040" lon="-113.587340">
        <ele>790.587</ele>
        <time>2018-12-28T13:51:42Z</time>
      </trkpt>
      <trkpt lat="37.055090" lon="-113.587320">
        <ele>790.741</ele>
        <time>2018-12-28T13:52:02Z</time>
      </trkpt>
      <trkpt lat="37.055180" lon="-113.587300">
        <ele>790.910</ele>
        <time>2018-12-28T13:52:22Z</time>
      </trkpt>
      <trkpt lat="37.055280" lon="-113.587270">
        <ele>791.185</ele>
        <time>2018-12-28T13:52:42Z</time>
      </trkpt>
      <trkpt lat="37.055520" lon="-113.587180">
        <ele>791.522</ele>
        <time>2018-12-28T13:53:02Z</time>
      </trkpt>
      <trkpt lat="37.055830" lon="-113.587030">
        <ele>791.962</ele>
        <time>2018-12-28T13:53:22Z</time>
      </trkpt>
      <trkpt lat="37.056030" lon="-113.586930">
        <ele>791.708</ele>
        <time>2018-12-28T13:53:42Z</time>
      </trkpt>
      <trkpt lat="37.056130" lon="-113.586870">
        <ele>791.608</ele>
        <time>2018-12-28T13:54:02Z</time>
      </trkpt>
      <trkpt lat="37.056220" lon="-113.586820">
        <ele>791.675</ele>
        <time>2018-12-28T13:54:22Z</time>
      </trkpt>
      <trkpt lat="37.056310" lon="-113.586760">
        <ele>791.673</ele>
        <time>2018-12-28T13:54:42Z</time>
      </trkpt>
      <trkpt lat="37.056420" lon="-113.586690">
        <ele>791.538</ele>
        <time>2018-12-28T13:55:02Z</time>
      </trkpt>
      <trkpt lat="37.056610" lon="-113.586570">
        <ele>791.459</ele>
        <time>2018-12-28T13:55:22Z</time>
      </trkpt>
      <trkpt lat="37.056720" lon="-113.586490">
        <ele>791.363</ele>
        <time>2018-12-28T13:55:42Z</time>
      </trkpt>
      <trkpt lat="37.056910" lon="-113.586350">
        <ele>791.287</ele>
        <time>2018-12-28T13:56:02Z</time>
      </trkpt>
      <trkpt lat="37.056990" lon="-113.586290">
        <ele>791.296</ele>
        <time>2018-12-28T13:56:22Z</time>
      </trkpt>
      <trkpt lat="37.057100" lon="-113.586190">
        <ele>791.291</ele>
        <time>2018-12-28T13:56:42Z</time>
      </trkpt>
      <trkpt lat="37.057260" lon="-113.586050">
        <ele>791.254</ele>
        <time>2018-12-28T13:57:02Z</time>
      </trkpt>
      <trkpt lat="37.057530" lon="-113.585790">
        <ele>791.356</ele>
        <time>2018-12-28T13:57:22Z</time>
      </trkpt>
      <trkpt lat="37.057950" lon="-113.585390">
        <ele>791.211</ele>
        <time>2018-12-28T13:57:42Z</time>
      </trkpt>
      <trkpt lat="37.058220" lon="-113.585140">
        <ele>791.108</ele>
        <time>2018-12-28T13:58:02Z</time>
      </trkpt>
      <trkpt lat="37.058410" lon="-113.584980">
        <ele>790.748</ele>
        <time>2018-12-28T13:58:22Z</time>
      </trkpt>
      <trkpt lat="37.058580" lon="-113.584830">
        <ele>790.476</ele>
        <time>2018-12-28T13:58:42Z</time>
      </trkpt>
      <trkpt lat="37.058680" lon="-113.584750">
        <ele>790.131</ele>
        <time>2018-12-28T13:59:02Z</time>
      </trkpt>
      <trkpt lat="37.058830" lon="-113.584650">
        <ele>789.722</ele>
        <time>2018-12-28T13:59:22Z</time>
      </trkpt>
      <trkpt lat="37.058980" lon="-113.584540">
        <ele>789.326</ele>
        <time>2018-12-28T13:59:42Z</time>
      </trkpt>
      <trkpt lat="37.059070" lon="-113.584490">
        <ele>789.090</ele>
        <time>2018-12-28T14:00:02Z</time>
      </trkpt>
      <trkpt lat="37.059160" lon="-113.584430">
        <ele>788.729</ele>
        <time>2018-12-28T14:00:22Z</time>
      </trkpt>
      <trkpt lat="37.059330" lon="-113.584330">
        <ele>787.964</ele>
        <time>2018-12-28T14:00:42Z</time>
      </trkpt>
      <trkpt lat="37.059670" lon="-113.584150">
        <ele>787.172</ele>
        <time>2018-12-28T14:01:02Z</time>
      </trkpt>
      <trkpt lat="37.059700" lon="-113.584130">
        <ele>787.213</ele>
        <time>2018-12-28T14:01:22Z</time>
      </trkpt>
      <trkpt lat="37.059710" lon="-113.584130">
        <ele>787.214</ele>
        <time>2018-12-28T14:01:42Z</time>
      </trkpt>
      <trkpt lat="37.059990" lon="-113.584000">
        <ele>787.508</ele>
        <time>2018-12-28T14:02:02Z</time>
      </trkpt>
      <trkpt lat="37.060170" lon="-113.583930">
        <ele>787.740</ele>
        <time>2018-12-28T14:02:22Z</time>
      </trkpt>
      <trkpt lat="37.060280" lon="-113.583900">
        <ele>787.878</ele>
        <time>2018-12-28T14:02:42Z</time>
      </trkpt>
      <trkpt lat="37.060380" lon="-113.583870">
        <ele>788.023</ele>
        <time>2018-12-28T14:03:02Z</time>
      </trkpt>
      <trkpt lat="37.060510" lon="-113.583830">
        <ele>788.314</ele>
        <time>2018-12-28T14:03:22Z</time>
      </trkpt>
      <trkpt lat="37.060710" lon="-113.583780">
        <ele>788.778</ele>
        <time>2018-12-28T14:03:42Z</time>
      </trkpt>
      <trkpt lat="37.060820" lon="-113.583750">
        <ele>788.952</ele>
        <time>2018-12-28T14:04:02Z</time>
      </trkpt>
      <trkpt lat="37.060940" lon="-113.583720">
        <ele>789.021</ele>
        <time>2018-12-28T14:04:22Z</time>
      </trkpt>
      <trkpt lat="37.061160" lon="-113.583680">
        <ele>789.186</ele>
        <time>2018-12-28T14:04:42Z</time>
      </trkpt>
      <trkpt lat="37.061360" lon="-113.583660">
        <ele>789.111</ele>
        <time>2018-12-28T14:05:02Z</time>
      </trkpt>
      <trkpt lat="37.061480" lon="-113.583640">
        <ele>789.121</ele>
        <time>2018-12-28T14:05:22Z</time>
      </trkpt>
      <trkpt lat="37.061690" lon="-113.583630">
        <ele>789.003</ele>
        <time>2018-12-28T14:05:42Z</time>
      </trkpt>
      <trkpt lat="37.061910" lon="-113.583620">
        <ele>788.808</ele>
        <time>2018-12-28T14:06:02Z</time>
      </trkpt>
      <trkpt lat="37.062020" lon="-113.583620">
        <ele>788.574</ele>
        <time>2018-12-28T14:06:22Z</time>
      </trkpt>
      <trkpt lat="37.062350" lon="-113.583630">
        <ele>787.852</ele>
        <time>2018-12-28T14:06:42Z</time>
      </trkpt>
      <trkpt lat="37.062560" lon="-113.583650">
        <ele>787.757</ele>
        <time>2018-12-28T14:07:02Z</time>
      </trkpt>
      <trkpt lat="37.062780" lon="-113.583660">
        <ele>787.458</ele>
        <time>2018-12-28T14:07:22Z</time>
      </trkpt>
      <trkpt lat="37.063010" lon="-113.583680">
        <ele>786.992</ele>
        <time>2018-12-28T14:07:42Z</time>
      </trkpt>
      <trkpt lat="37.063330" lon="-113.583710">
        <ele>785.936</ele>
        <time>2018-12-28T14:08:02Z</time>
      </trkpt>
      <trkpt lat="37.063770" lon="-113.583750">
        <ele>785.455</ele>
        <time>2018-12-28T14:08:22Z</time>
      </trkpt>
      <trkpt lat="37.064760" lon="-113.583830">
        <ele>784.010</ele>
        <time>2018-12-28T14:08:42Z</time>
      </trkpt>
      <trkpt lat="37.064870" lon="-113.583840">
        <ele>783.836</ele>
        <time>2018-12-28T14:09:02Z</time>
      </trkpt>
      <trkpt lat="37.065330" lon="-113.583870">
        <ele>784.017</ele>
        <time>2018-12-28T14:09:22Z</time>
      </trkpt>
      <trkpt lat="37.066280" lon="-113.583960">
        <ele>781.118</ele>
        <time>2018-12-28T14:09:42Z</time>
      </trkpt>
      <trkpt lat="37.069450" lon="-113.584220">
        <ele>770.108</ele>
        <time>2018-12-28T14:10:02Z</time>
      </trkpt>
      <trkpt lat="37.069600" lon="-113.584230">
        <ele>771.286</ele>
        <time>2018-12-28T14:10:22Z</time>
      </trkpt>
      <trkpt lat="37.069960" lon="-113.584270">
        <ele>776.594</ele>
        <time>2018-12-28T14:10:42Z</time>
      </trkpt>
      <trkpt lat="37.070400" lon="-113.584310">
        <ele>781.899</ele>
        <time>2018-12-28T14:11:02Z</time>
      </trkpt>
      <trkpt lat="37.070790" lon="-113.584340">
        <ele>782.390</ele>
        <time>2018-12-28T14:11:22Z</time>
      </trkpt>
      <trkpt lat="37.071350" lon="-113.584380">
        <ele>784.844</ele>
        <time>2018-12-28T14:11:42Z</time>
      </trkpt>
      <trkpt lat="37.071930" lon="-113.584410">
        <ele>785.768</ele>
        <time>2018-12-28T14:12:02Z</time>
      </trkpt>
      <trkpt lat="37.072480" lon="-113.584420">
        <ele>785.297</ele>
        <time>2018-12-28T14:12:22Z</time>
      </trkpt>
      <trkpt lat="37.073830" lon="-113.584540">
        <ele>776.432</ele>
        <time>2018-12-28T14:12:42Z</time>
      </trkpt>
      <trkpt lat="37.074180" lon="-113.584570">
        <ele>774.643</ele>
        <time>2018-12-28T14:13:02Z</time>
      </trkpt>
      <trkpt lat="37.074540" lon="-113.584590">
        <ele>775.064</ele>
        <time>2018-12-28T14:13:22Z</time>
      </trkpt>
      <trkpt lat="37.075220" lon="-113.584660">
        <ele>775.110</ele>
        <time>2018-12-28T14:13:42Z</time>
      </trkpt>
      <trkpt lat="37.075530" lon="-113.584680">
        <ele>775.108</ele>
        <time>2018-12-28T14:14:02Z</time>
      </trkpt>
      <trkpt lat="37.076080" lon="-113.584730">
        <ele>775.127</ele>
        <time>2018-12-28T14:14:22Z</time>
      </trkpt>
      <trkpt lat="37.076290" lon="-113.584750">
        <ele>775.145</ele>
        <time>2018-12-28T14:14:42Z</time>
      </trkpt>
      <trkpt lat="37.076520" lon="-113.584760">
        <ele>775.250</ele>
        <time>2018-12-28T14:15:02Z</time>
      </trkpt>
      <trkpt lat="37.076840" lon="-113.584770">
        <ele>775.471</ele>
        <time>2018-12-28T14:15:22Z</time>
      </trkpt>
      <trkpt lat="37.077170" lon="-113.584770">
        <ele>775.915</ele>
        <time>2018-12-28T14:15:42Z</time>
      </trkpt>
      <trkpt lat="37.077400" lon="-113.584770">
        <ele>776.239</ele>
        <time>2018-12-28T14:16:02Z</time>
      </trkpt>
      <trkpt lat="37.077620" lon="-113.584760">
        <ele>776.698</ele>
        <time>2018-12-28T14:16:22Z</time>
      </trkpt>
      <trkpt lat="37.077840" lon="-113.584740">
        <ele>777.053</ele>
        <time>2018-12-28T14:16:42Z</time>
      </trkpt>
      <trkpt lat="37.078160" lon="-113.584710">
        <ele>777.418</ele>
        <time>2018-12-28T14:17:02Z</time>
      </trkpt>
      <trkpt lat="37.078480" lon="-113.584670">
        <ele>777.898</ele>
        <time>2018-12-28T14:17:22Z</time>
      </trkpt>
      <trkpt lat="37.078580" lon="-113.584650">
        <ele>777.917</ele>
        <time>2018-12-28T14:17:42Z</time>
      </trkpt>
      <trkpt lat="37.079170" lon="-113.584550">
        <ele>778.408</ele>
        <time>2018-12-28T14:18:02Z</time>
      </trkpt>
      <trkpt lat="37.079640" lon="-113.584440">
        <ele>778.814</ele>
        <time>2018-12-28T14:18:22Z</time>
      </trkpt>
      <trkpt lat="37.079900" lon="-113.584380">
        <ele>778.942</ele>
        <time>2018-12-28T14:18:42Z</time>
      </trkpt>
      <trkpt lat="37.080160" lon="-113.584310">
        <ele>779.157</ele>
        <time>2018-12-28T14:19:02Z</time>
      </trkpt>
      <trkpt lat="37.080370" lon="-113.584240">
        <ele>779.498</ele>
        <time>2018-12-28T14:19:22Z</time>
      </trkpt>
      <trkpt lat="37.080590" lon="-113.584180">
        <ele>779.792</ele>
        <time>2018-12-28T14:19:42Z</time>
      </trkpt>
      <trkpt lat="37.080900" lon="-113.584070">
        <ele>780.366</ele>
        <time>2018-12-28T14:20:02Z</time>
      </trkpt>
      <trkpt lat="37.081120" lon="-113.583990">
        <ele>780.765</ele>
        <time>2018-12-28T14:20:22Z</time>
      </trkpt>
      <trkpt lat="37.081370" lon="-113.583890">
        <ele>781.230</ele>
        <time>2018-12-28T14:20:42Z</time>
      </trkpt>
      <trkpt lat="37.081590" lon="-113.583800">
        <ele>781.435</ele>
        <time>2018-12-28T14:21:02Z</time>
      </trkpt>
      <trkpt lat="37.081740" lon="-113.583740">
        <ele>781.686</ele>
        <time>2018-12-28T14:21:22Z</time>
      </trkpt>
      <trkpt lat="37.082060" lon="-113.583600">
        <ele>781.514</ele>
        <time>2018-12-28T14:21:42Z</time>
      </trkpt>
      <trkpt lat="37.082330" lon="-113.583470">
        <ele>781.808</ele>
        <time>2018-12-28T14:22:02Z</time>
      </trkpt>
      <trkpt lat="37.082660" lon="-113.583310">
        <ele>782.386</ele>
        <time>2018-12-28T14:22:22Z</time>
      </trkpt>
      <trkpt lat="37.082880" lon="-113.583190">
        <ele>783.484</ele>
        <time>2018-12-28T14:22:42Z</time>
      </trkpt>
      <trkpt lat="37.083170" lon="-113.583030">
        <ele>785.569</ele>
        <time>2018-12-28T14:23:02Z</time>
      </trkpt>
      <trkpt lat="37.083380" lon="-113.582900">
        <ele>786.080</ele>
        <time>2018-12-28T14:23:22Z</time>
      </trkpt>
      <trkpt lat="37.083470" lon="-113.582850">
        <ele>786.084</ele>
        <time>2018-12-28T14:23:42Z</time>
      </trkpt>
      <trkpt lat="37.083500" lon="-113.582830">
        <ele>786.128</ele>
        <time>2018-12-28T14:24:02Z</time>
      </trkpt>
      <trkpt lat="37.083660" lon="-113.582730">
        <ele>785.977</ele>
        <time>2018-12-28T14:24:22Z</time>
      </trkpt>
      <trkpt lat="37.083850" lon="-113.582610">
        <ele>785.712</ele>
        <time>2018-12-28T14:24:42Z</time>
      </trkpt>
      <trkpt lat="37.084090" lon="-113.582460">
        <ele>785.899</ele>
        <time>2018-12-28T14:25:02Z</time>
      </trkpt>
      <trkpt lat="37.084320" lon="-113.582290">
        <ele>785.607</ele>
        <time>2018-12-28T14:25:22Z</time>
      </trkpt>
      <trkpt lat="37.084550" lon="-113.582130">
        <ele>785.227</ele>
        <time>2018-12-28T14:25:42Z</time>
      </trkpt>
      <trkpt lat="37.084740" lon="-113.581980">
        <ele>785.108</ele>
        <time>2018-12-28T14:26:02Z</time>
      </trkpt>
      <trkpt lat="37.084910" lon="-113.581860">
        <ele>785.192</ele>
        <time>2018-12-28T14:26:22Z</time>
      </trkpt>
      <trkpt lat="37.085200" lon="-113.581620">
        <ele>785.440</ele>
        <time>2018-12-28T14:26:42Z</time>
      </trkpt>
      <trkpt lat="37.085370" lon="-113.581480">
        <ele>785.765</ele>
        <time>2018-12-28T14:27:02Z</time>
      </trkpt>
      <trkpt lat="37.085550" lon="-113.581320">
        <ele>785.926</ele>
        <time>2018-12-28T14:27:22Z</time>
      </trkpt>
      <trkpt lat="37.085730" lon="-113.581160">
        <ele>786.230</ele>
        <time>2018-12-28T14:27:42Z</time>
      </trkpt>
      <trkpt lat="37.086000" lon="-113.580910">
        <ele>786.534</ele>
        <time>2018-12-28T14:28:02Z</time>
      </trkpt>
      <trkpt lat="37.086160" lon="-113.580750">
        <ele>786.773</ele>
        <time>2018-12-28T14:28:22Z</time>
      </trkpt>
      <trkpt lat="37.086350" lon="-113.580580">
        <ele>787.178</ele>
        <time>2018-12-28T14:28:42Z</time>
      </trkpt>
      <trkpt lat="37.086600" lon="-113.580320">
        <ele>787.497</ele>
        <time>2018-12-28T14:29:02Z</time>
      </trkpt>
      <trkpt lat="37.086770" lon="-113.580140">
        <ele>787.523</ele>
        <time>2018-12-28T14:29:22Z</time>
      </trkpt>
      <trkpt lat="37.086950" lon="-113.579950">
        <ele>787.525</ele>
        <time>2018-12-28T14:29:42Z</time>
      </trkpt>
      <trkpt lat="37.087550" lon="-113.579240">
        <ele>787.408</ele>
        <time>2018-12-28T14:30:02Z</time>
      </trkpt>
      <trkpt lat="37.087880" lon="-113.578820">
        <ele>787.422</ele>
        <time>2018-12-28T14:30:22Z</time>
      </trkpt>
      <trkpt lat="37.088110" lon="-113.578510">
        <ele>787.510</ele>
        <time>2018-12-28T14:30:42Z</time>
      </trkpt>
      <trkpt lat="37.088240" lon="-113.578330">
        <ele>787.585</ele>
        <time>2018-12-28T14:31:02Z</time>
      </trkpt>
      <trkpt lat="37.088450" lon="-113.578030">
        <ele>787.696</ele>
        <time>2018-12-28T14:31:22Z</time>
      </trkpt>
      <trkpt lat="37.088610" lon="-113.577800">
        <ele>787.750</ele>
        <time>2018-12-28T14:31:42Z</time>
      </trkpt>
      <trkpt lat="37.088760" lon="-113.577560">
        <ele>787.864</ele>
        <time>2018-12-28T14:32:02Z</time>
      </trkpt>
      <trkpt lat="37.089030" lon="-113.577130">
        <ele>788.033</ele>
        <time>2018-12-28T14:32:22Z</time>
      </trkpt>
      <trkpt lat="37.089300" lon="-113.576690">
        <ele>788.598</ele>
        <time>2018-12-28T14:32:42Z</time>
      </trkpt>
      <trkpt lat="37.089560" lon="-113.576260">
        <ele>789.245</ele>
        <time>2018-12-28T14:33:02Z</time>
      </trkpt>
      <trkpt lat="37.089750" lon="-113.575940">
        <ele>790.047</ele>
        <time>2018-12-28T14:33:22Z</time>
      </trkpt>
      <trkpt lat="37.089950" lon="-113.575600">
        <ele>790.911</ele>
        <time>2018-12-28T14:33:42Z</time>
      </trkpt>
      <trkpt lat="37.089970" lon="-113.575570">
        <ele>791.008</ele>
        <time>2018-12-28T14:34:02Z</time>
      </trkpt>
      <trkpt lat="37.090190" lon="-113.575220">
        <ele>792.387</ele>
        <time>2018-12-28T14:34:22Z</time>
      </trkpt>
      <trkpt lat="37.090660" lon="-113.574410">
        <ele>793.485</ele>
        <time>2018-12-28T14:34:42Z</time>
      </trkpt>
      <trkpt lat="37.090980" lon="-113.573860">
        <ele>793.590</ele>
        <time>2018-12-28T14:35:02Z</time>
      </trkpt>
      <trkpt lat="37.091380" lon="-113.573190">
        <ele>793.781</ele>
        <time>2018-12-28T14:35:22Z</time>
      </trkpt>
      <trkpt lat="37.091730" lon="-113.572620">
        <ele>794.185</ele>
        <time>2018-12-28T14:35:42Z</time>
      </trkpt>
      <trkpt lat="37.092180" lon="-113.571870">
        <ele>794.849</ele>
        <time>2018-12-28T14:36:02Z</time>
      </trkpt>
      <trkpt lat="37.092410" lon="-113.571470">
        <ele>795.138</ele>
        <time>2018-12-28T14:36:22Z</time>
      </trkpt>
      <trkpt lat="37.092830" lon="-113.570780">
        <ele>795.963</ele>
        <time>2018-12-28T14:36:42Z</time>
      </trkpt>
      <trkpt lat="37.094240" lon="-113.568430">
        <ele>799.946</ele>
        <time>2018-12-28T14:37:02Z</time>
      </trkpt>
      <trkpt lat="37.094670" lon="-113.567730">
        <ele>801.188</ele>
        <time>2018-12-28T14:37:22Z</time>
      </trkpt>
      <trkpt lat="37.095010" lon="-113.567180">
        <ele>804.416</ele>
        <time>2018-12-28T14:37:42Z</time>
      </trkpt>
      <trkpt lat="37.095250" lon="-113.566810">
        <ele>805.508</ele>
        <time>2018-12-28T14:38:02Z</time>
      </trkpt>
      <trkpt lat="37.095650" lon="-113.566240">
        <ele>805.467</ele>
        <time>2018-12-28T14:38:22Z</time>
      </trkpt>
      <trkpt lat="37.096010" lon="-113.565750">
        <ele>805.565</ele>
        <time>2018-12-28T14:38:42Z</time>
      </trkpt>
      <trkpt lat="37.096250" lon="-113.565460">
        <ele>805.440</ele>
        <time>2018-12-28T14:39:02Z</time>
      </trkpt>
      <trkpt lat="37.096490" lon="-113.565150">
        <ele>806.071</ele>
        <time>2018-12-28T14:39:22Z</time>
      </trkpt>
      <trkpt lat="37.096810" lon="-113.564790">
        <ele>806.415</ele>
        <time>2018-12-28T14:39:42Z</time>
      </trkpt>
      <trkpt lat="37.097160" lon="-113.564420">
        <ele>808.199</ele>
        <time>2018-12-28T14:40:02Z</time>
      </trkpt>
      <trkpt lat="37.097400" lon="-113.564170">
        <ele>810.678</ele>
        <time>2018-12-28T14:40:22Z</time>
      </trkpt>
      <trkpt lat="37.097830" lon="-113.563740">
        <ele>811.993</ele>
        <time>2018-12-28T14:40:42Z</time>
      </trkpt>
      <trkpt lat="37.098460" lon="-113.563180">
        <ele>812.168</ele>
        <time>2018-12-28T14:41:02Z</time>
      </trkpt>
      <trkpt lat="37.098670" lon="-113.563000">
        <ele>812.242</ele>
        <time>2018-12-28T14:41:22Z</time>
      </trkpt>
      <trkpt lat="37.098800" lon="-113.562890">
        <ele>812.326</ele>
        <time>2018-12-28T14:41:42Z</time>
      </trkpt>
      <trkpt lat="37.099240" lon="-113.562560">
        <ele>813.408</ele>
        <time>2018-12-28T14:42:02Z</time>
      </trkpt>
      <trkpt lat="37.099510" lon="-113.562360">
        <ele>815.339</ele>
        <time>2018-12-28T14:42:22Z</time>
      </trkpt>
      <trkpt lat="37.099630" lon="-113.562270">
        <ele>816.297</ele>
        <time>2018-12-28T14:42:42Z</time>
      </trkpt>
      <trkpt lat="37.100090" lon="-113.561970">
        <ele>818.052</ele>
        <time>2018-12-28T14:43:02Z</time>
      </trkpt>
      <trkpt lat="37.100430" lon="-113.561740">
        <ele>818.253</ele>
        <time>2018-12-28T14:43:22Z</time>
      </trkpt>
      <trkpt lat="37.100830" lon="-113.561510">
        <ele>818.557</ele>
        <time>2018-12-28T14:43:42Z</time>
      </trkpt>
      <trkpt lat="37.101190" lon="-113.561310">
        <ele>819.061</ele>
        <time>2018-12-28T14:44:02Z</time>
      </trkpt>
      <trkpt lat="37.101370" lon="-113.561210">
        <ele>819.710</ele>
        <time>2018-12-28T14:44:22Z</time>
      </trkpt>
      <trkpt lat="37.101930" lon="-113.560940">
        <ele>822.895</ele>
        <time>2018-12-28T14:44:42Z</time>
      </trkpt>
      <trkpt lat="37.102360" lon="-113.560740">
        <ele>823.911</ele>
        <time>2018-12-28T14:45:02Z</time>
      </trkpt>
      <trkpt lat="37.103000" lon="-113.560480">
        <ele>824.421</ele>
        <time>2018-12-28T14:45:22Z</time>
      </trkpt>
      <trkpt lat="37.103250" lon="-113.560380">
        <ele>825.303</ele>
        <time>2018-12-28T14:45:42Z</time>
      </trkpt>
      <trkpt lat="37.105250" lon="-113.559600">
        <ele>837.108</ele>
        <time>2018-12-28T14:46:02Z</time>
      </trkpt>
      <trkpt lat="37.105840" lon="-113.559360">
        <ele>841.294</ele>
        <time>2018-12-28T14:46:22Z</time>
      </trkpt>
      <trkpt lat="37.106380" lon="-113.559140">
        <ele>841.712</ele>
        <time>2018-12-28T14:46:42Z</time>
      </trkpt>
      <trkpt lat="37.106430" lon="-113.559120">
        <ele>841.867</ele>
        <time>2018-12-28T14:47:02Z</time>
      </trkpt>
      <trkpt lat="37.107400" lon="-113.558760">
        <ele>848.428</ele>
        <time>2018-12-28T14:47:22Z</time>
      </trkpt>
      <trkpt lat="37.108000" lon="-113.558530">
        <ele>849.362</ele>
        <time>2018-12-28T14:47:42Z</time>
      </trkpt>
      <trkpt lat="37.108250" lon="-113.558430">
        <ele>849.846</ele>
        <time>2018-12-28T14:48:02Z</time>
      </trkpt>
      <trkpt lat="37.108330" lon="-113.558400">
        <ele>850.075</ele>
        <time>2018-12-28T14:48:22Z</time>
      </trkpt>
      <trkpt lat="37.108780" lon="-113.558220">
        <ele>851.590</ele>
        <time>2018-12-28T14:48:42Z</time>
      </trkpt>
      <trkpt lat="37.109430" lon="-113.557980">
        <ele>855.211</ele>
        <time>2018-12-28T14:49:02Z</time>
      </trkpt>
      <trkpt lat="37.109780" lon="-113.557850">
        <ele>857.321</ele>
        <time>2018-12-28T14:49:22Z</time>
      </trkpt>
      <trkpt lat="37.109930" lon="-113.557790">
        <ele>858.203</ele>
        <time>2018-12-28T14:49:42Z</time>
      </trkpt>
      <trkpt lat="37.110320" lon="-113.557630">
        <ele>858.108</ele>
        <time>2018-12-28T14:50:02Z</time>
      </trkpt>
      <trkpt lat="37.110630" lon="-113.557490">
        <ele>858.124</ele>
        <time>2018-12-28T14:50:22Z</time>
      </trkpt>
      <trkpt lat="37.110800" lon="-113.557410">
        <ele>858.122</ele>
        <time>2018-12-28T14:50:42Z</time>
      </trkpt>
      <trkpt lat="37.111140" lon="-113.557240">
        <ele>858.677</ele>
        <time>2018-12-28T14:51:02Z</time>
      </trkpt>
      <trkpt lat="37.111450" lon="-113.557070">
        <ele>859.288</ele>
        <time>2018-12-28T14:51:22Z</time>
      </trkpt>
      <trkpt lat="37.111730" lon="-113.556890">
        <ele>860.492</ele>
        <time>2018-12-28T14:51:42Z</time>
      </trkpt>
      <trkpt lat="37.111870" lon="-113.556800">
        <ele>860.866</ele>
        <time>2018-12-28T14:52:02Z</time>
      </trkpt>
      <trkpt lat="37.111980" lon="-113.556720">
        <ele>860.935</ele>
        <time>2018-12-28T14:52:22Z</time>
      </trkpt>
      <trkpt lat="37.112400" lon="-113.556420">
        <ele>861.240</ele>
        <time>2018-12-28T14:52:42Z</time>
      </trkpt>
      <trkpt lat="37.112570" lon="-113.556290">
        <ele>861.515</ele>
        <time>2018-12-28T14:53:02Z</time>
      </trkpt>
      <trkpt lat="37.112660" lon="-113.556220">
        <ele>861.765</ele>
        <time>2018-12-28T14:53:22Z</time>
      </trkpt>
      <trkpt lat="37.112780" lon="-113.556120">
        <ele>861.911</ele>
        <time>2018-12-28T14:53:42Z</time>
      </trkpt>
      <trkpt lat="37.112950" lon="-113.555980">
        <ele>862.208</ele>
        <time>2018-12-28T14:54:02Z</time>
      </trkpt>
      <trkpt lat="37.113110" lon="-113.555840">
        <ele>862.884</ele>
        <time>2018-12-28T14:54:22Z</time>
      </trkpt>
      <trkpt lat="37.113240" lon="-113.555720">
        <ele>863.412</ele>
        <time>2018-12-28T14:54:42Z</time>
      </trkpt>
      <trkpt lat="37.113390" lon="-113.555580">
        <ele>864.027</ele>
        <time>2018-12-28T14:55:02Z</time>
      </trkpt>
      <trkpt lat="37.113530" lon="-113.555440">
        <ele>864.488</ele>
        <time>2018-12-28T14:55:22Z</time>
      </trkpt>
      <trkpt lat="37.114340" lon="-113.554510">
        <ele>866.692</ele>
        <time>2018-12-28T14:55:42Z</time>
      </trkpt>
      <trkpt lat="37.114580" lon="-113.554200">
        <ele>866.786</ele>
        <time>2018-12-28T14:56:02Z</time>
      </trkpt>
      <trkpt lat="37.114760" lon="-113.553970">
        <ele>867.145</ele>
        <time>2018-12-28T14:56:22Z</time>
      </trkpt>
      <trkpt lat="37.114900" lon="-113.553780">
        <ele>867.580</ele>
        <time>2018-12-28T14:56:42Z</time>
      </trkpt>
      <trkpt lat="37.115120" lon="-113.553460">
        <ele>867.877</ele>
        <time>2018-12-28T14:57:02Z</time>
      </trkpt>
      <trkpt lat="37.115260" lon="-113.553250">
        <ele>868.361</ele>
        <time>2018-12-28T14:57:22Z</time>
      </trkpt>
      <trkpt lat="37.115410" lon="-113.553000">
        <ele>869.227</ele>
        <time>2018-12-28T14:57:42Z</time>
      </trkpt>
      <trkpt lat="37.115500" lon="-113.552850">
        <ele>870.408</ele>
        <time>2018-12-28T14:58:02Z</time>
      </trkpt>
      <trkpt lat="37.115550" lon="-113.552740">
        <ele>871.310</ele>
        <time>2018-12-28T14:58:22Z</time>
      </trkpt>
      <trkpt lat="37.115710" lon="-113.552450">
        <ele>871.718</ele>
        <time>2018-12-28T14:58:42Z</time>
      </trkpt>
      <trkpt lat="37.115770" lon="-113.552320">
        <ele>871.843</ele>
        <time>2018-12-28T14:59:02Z</time>
      </trkpt>
      <trkpt lat="37.115980" lon="-113.551890">
        <ele>870.784</ele>
        <time>2018-12-28T14:59:22Z</time>
      </trkpt>
      <trkpt lat="37.116100" lon="-113.551650">
        <ele>871.698</ele>
        <time>2018-12-28T14:59:42Z</time>
      </trkpt>
      <trkpt lat="37.116450" lon="-113.550820">
        <ele>872.492</ele>
        <time>2018-12-28T15:00:02Z</time>
      </trkpt>
      <trkpt lat="37.117380" lon="-113.548630">
        <ele>867.191</ele>
        <time>2018-12-28T15:00:22Z</time>
      </trkpt>
      <trkpt lat="37.118020" lon="-113.547180">
        <ele>866.916</ele>
        <time>2018-12-28T15:00:42Z</time>
      </trkpt>
      <trkpt lat="37.118070" lon="-113.547070">
        <ele>866.966</ele>
        <time>2018-12-28T15:01:02Z</time>
      </trkpt>
      <trkpt lat="37.118250" lon="-113.546630">
        <ele>867.029</ele>
        <time>2018-12-28T15:01:22Z</time>
      </trkpt>
      <trkpt lat="37.118440" lon="-113.546200">
        <ele>866.921</ele>
        <time>2018-12-28T15:01:42Z</time>
      </trkpt>
      <trkpt lat="37.118570" lon="-113.545880">
        <ele>866.908</ele>
        <time>2018-12-28T15:02:02Z</time>
      </trkpt>
      <trkpt lat="37.119160" lon="-113.544410">
        <ele>867.359</ele>
        <time>2018-12-28T15:02:22Z</time>
      </trkpt>
      <trkpt lat="37.122020" lon="-113.537600">
        <ele>866.557</ele>
        <time>2018-12-28T15:02:42Z</time>
      </trkpt>
      <trkpt lat="37.123030" lon="-113.535200">
        <ele>864.462</ele>
        <time>2018-12-28T15:03:02Z</time>
      </trkpt>
      <trkpt lat="37.123280" lon="-113.534630">
        <ele>864.283</ele>
        <time>2018-12-28T15:03:22Z</time>
      </trkpt>
      <trkpt lat="37.123890" lon="-113.533290">
        <ele>863.857</ele>
        <time>2018-12-28T15:03:42Z</time>
      </trkpt>
      <trkpt lat="37.124260" lon="-113.532520">
        <ele>863.671</ele>
        <time>2018-12-28T15:04:02Z</time>
      </trkpt>
      <trkpt lat="37.124580" lon="-113.531910">
        <ele>863.320</ele>
        <time>2018-12-28T15:04:22Z</time>
      </trkpt>
      <trkpt lat="37.125330" lon="-113.530510">
        <ele>861.585</ele>
        <time>2018-12-28T15:04:42Z</time>
      </trkpt>
      <trkpt lat="37.125700" lon="-113.529890">
        <ele>861.219</ele>
        <time>2018-12-28T15:05:02Z</time>
      </trkpt>
      <trkpt lat="37.127050" lon="-113.527580">
        <ele>863.609</ele>
        <time>2018-12-28T15:05:22Z</time>
      </trkpt>
      <trkpt lat="37.127370" lon="-113.527050">
        <ele>864.719</ele>
        <time>2018-12-28T15:05:42Z</time>
      </trkpt>
      <trkpt lat="37.127630" lon="-113.526630">
        <ele>865.208</ele>
        <time>2018-12-28T15:06:02Z</time>
      </trkpt>
      <trkpt lat="37.128040" lon="-113.525970">
        <ele>866.094</ele>
        <time>2018-12-28T15:06:22Z</time>
      </trkpt>
      <trkpt lat="37.128370" lon="-113.525460">
        <ele>866.262</ele>
        <time>2018-12-28T15:06:42Z</time>
      </trkpt>
      <trkpt lat="37.128520" lon="-113.525220">
        <ele>866.187</ele>
        <time>2018-12-28T15:07:02Z</time>
      </trkpt>
      <trkpt lat="37.128590" lon="-113.525130">
        <ele>866.098</ele>
        <time>2018-12-28T15:07:22Z</time>
      </trkpt>
      <trkpt lat="37.128600" lon="-113.525100">
        <ele>866.072</ele>
        <time>2018-12-28T15:07:42Z</time>
      </trkpt>
      <trkpt lat="37.128630" lon="-113.525070">
        <ele>866.026</ele>
        <time>2018-12-28T15:08:02Z</time>
      </trkpt>
      <trkpt lat="37.128640" lon="-113.525040">
        <ele>866.075</ele>
        <time>2018-12-28T15:08:22Z</time>
      </trkpt>
      <trkpt lat="37.128650" lon="-113.525020">
        <ele>866.040</ele>
        <time>2018-12-28T15:08:42Z</time>
      </trkpt>
      <trkpt lat="37.128680" lon="-113.524990">
        <ele>866.078</ele>
        <time>2018-12-28T15:09:02Z</time>
      </trkpt>
      <trkpt lat="37.128830" lon="-113.524760">
        <ele>866.233</ele>
        <time>2018-12-28T15:09:22Z</time>
      </trkpt>
      <trkpt lat="37.129300" lon="-113.524060">
        <ele>866.326</ele>
        <time>2018-12-28T15:09:42Z</time>
      </trkpt>
      <trkpt lat="37.130580" lon="-113.522260">
        <ele>861.808</ele>
        <time>2018-12-28T15:10:02Z</time>
      </trkpt>
      <trkpt lat="37.131040" lon="-113.521600">
        <ele>860.770</ele>
        <time>2018-12-28T15:10:22Z</time>
      </trkpt>
      <trkpt lat="37.131670" lon="-113.520630">
        <ele>859.388</ele>
        <time>2018-12-28T15:10:42Z</time>
      </trkpt>
      <trkpt lat="37.131990" lon="-113.520150">
        <ele>858.493</ele>
        <time>2018-12-28T15:11:02Z</time>
      </trkpt>
      <trkpt lat="37.132050" lon="-113.520060">
        <ele>858.264</ele>
        <time>2018-12-28T15:11:22Z</time>
      </trkpt>
      <trkpt lat="37.132130" lon="-113.519930">
        <ele>857.868</ele>
        <time>2018-12-28T15:11:42Z</time>
      </trkpt>
      <trkpt lat="37.132500" lon="-113.519360">
        <ele>856.112</ele>
        <time>2018-12-28T15:12:02Z</time>
      </trkpt>
      <trkpt lat="37.133990" lon="-113.517060">
        <ele>854.411</ele>
        <time>2018-12-28T15:12:22Z</time>
      </trkpt>
      <trkpt lat="37.135500" lon="-113.514750">
        <ele>863.236</ele>
        <time>2018-12-28T15:12:42Z</time>
      </trkpt>
      <trkpt lat="37.136430" lon="-113.513310">
        <ele>866.798</ele>
        <time>2018-12-28T15:13:02Z</time>
      </trkpt>
      <trkpt lat="37.136750" lon="-113.512820">
        <ele>867.215</ele>
        <time>2018-12-28T15:13:22Z</time>
      </trkpt>
      <trkpt lat="37.136910" lon="-113.512580">
        <ele>867.626</ele>
        <time>2018-12-28T15:13:42Z</time>
      </trkpt>
      <trkpt lat="37.137770" lon="-113.511250">
        <ele>874.708</ele>
        <time>2018-12-28T15:14:02Z</time>
      </trkpt>
      <trkpt lat="37.137980" lon="-113.510910">
        <ele>877.622</ele>
        <time>2018-12-28T15:14:22Z</time>
      </trkpt>
      <trkpt lat="37.138180" lon="-113.510570">
        <ele>878.730</ele>
        <time>2018-12-28T15:14:42Z</time>
      </trkpt>
      <trkpt lat="37.138360" lon="-113.510240">
        <ele>878.755</ele>
        <time>2018-12-28T15:15:02Z</time>
      </trkpt>
      <trkpt lat="37.138440" lon="-113.510100">
        <ele>878.766</ele>
        <time>2018-12-28T15:15:22Z</time>
      </trkpt>
      <trkpt lat="37.138600" lon="-113.509810">
        <ele>878.630</ele>
        <time>2018-12-28T15:15:42Z</time>
      </trkpt>
      <trkpt lat="37.138600" lon="-113.509800">
        <ele>878.664</ele>
        <time>2018-12-28T15:16:02Z</time>
      </trkpt>
      <trkpt lat="37.138750" lon="-113.509520">
        <ele>878.863</ele>
        <time>2018-12-28T15:16:22Z</time>
      </trkpt>
      <trkpt lat="37.139030" lon="-113.508970">
        <ele>879.338</ele>
        <time>2018-12-28T15:16:42Z</time>
      </trkpt>
      <trkpt lat="37.139260" lon="-113.508480">
        <ele>879.358</ele>
        <time>2018-12-28T15:17:02Z</time>
      </trkpt>
      <trkpt lat="37.139420" lon="-113.508140">
        <ele>880.052</ele>
        <time>2018-12-28T15:17:22Z</time>
      </trkpt>
      <trkpt lat="37.139620" lon="-113.507670">
        <ele>881.617</ele>
        <time>2018-12-28T15:17:42Z</time>
      </trkpt>
      <trkpt lat="37.139890" lon="-113.507030">
        <ele>883.808</ele>
        <time>2018-12-28T15:18:02Z</time>
      </trkpt>
      <trkpt lat="37.140040" lon="-113.506670">
        <ele>885.848</ele>
        <time>2018-12-28T15:18:22Z</time>
      </trkpt>
      <trkpt lat="37.140100" lon="-113.506510">
        <ele>886.776</ele>
        <time>2018-12-28T15:18:42Z</time>
      </trkpt>
      <trkpt lat="37.140150" lon="-113.506360">
        <ele>887.551</ele>
        <time>2018-12-28T15:19:02Z</time>
      </trkpt>
      <trkpt lat="37.140270" lon="-113.506050">
        <ele>888.982</ele>
        <time>2018-12-28T15:19:22Z</time>
      </trkpt>
      <trkpt lat="37.140380" lon="-113.505750">
        <ele>890.476</ele>
        <time>2018-12-28T15:19:42Z</time>
      </trkpt>
      <trkpt lat="37.140450" lon="-113.505540">
        <ele>890.770</ele>
        <time>2018-12-28T15:20:02Z</time>
      </trkpt>
      <trkpt lat="37.140620" lon="-113.505030">
        <ele>890.879</ele>
        <time>2018-12-28T15:20:22Z</time>
      </trkpt>
      <trkpt lat="37.140760" lon="-113.504620">
        <ele>891.674</ele>
        <time>2018-12-28T15:20:42Z</time>
      </trkpt>
      <trkpt lat="37.141080" lon="-113.503680">
        <ele>894.434</ele>
        <time>2018-12-28T15:21:02Z</time>
      </trkpt>
      <trkpt lat="37.141690" lon="-113.501900">
        <ele>903.455</ele>
        <time>2018-12-28T15:21:22Z</time>
      </trkpt>
      <trkpt lat="37.141950" lon="-113.501130">
        <ele>905.810</ele>
        <time>2018-12-28T15:21:42Z</time>
      </trkpt>
      <trkpt lat="37.142210" lon="-113.500350">
        <ele>906.608</ele>
        <time>2018-12-28T15:22:02Z</time>
      </trkpt>
      <trkpt lat="37.142530" lon="-113.499440">
        <ele>908.026</ele>
        <time>2018-12-28T15:22:22Z</time>
      </trkpt>
      <trkpt lat="37.143150" lon="-113.497630">
        <ele>910.054</ele>
        <time>2018-12-28T15:22:42Z</time>
      </trkpt>
      <trkpt lat="37.143500" lon="-113.496600">
        <ele>911.079</ele>
        <time>2018-12-28T15:23:02Z</time>
      </trkpt>
      <trkpt lat="37.143780" lon="-113.495770">
        <ele>911.780</ele>
        <time>2018-12-28T15:23:22Z</time>
      </trkpt>
      <trkpt lat="37.144080" lon="-113.494880">
        <ele>912.754</ele>
        <time>2018-12-28T15:23:42Z</time>
      </trkpt>
      <trkpt lat="37.144210" lon="-113.494500">
        <ele>913.378</ele>
        <time>2018-12-28T15:24:02Z</time>
      </trkpt>
      <trkpt lat="37.145120" lon="-113.491850">
        <ele>916.357</ele>
        <time>2018-12-28T15:24:22Z</time>
      </trkpt>
      <trkpt lat="37.145270" lon="-113.491400">
        <ele>916.832</ele>
        <time>2018-12-28T15:24:42Z</time>
      </trkpt>
      <trkpt lat="37.145440" lon="-113.490900">
        <ele>916.866</ele>
        <time>2018-12-28T15:25:02Z</time>
      </trkpt>
      <trkpt lat="37.145540" lon="-113.490630">
        <ele>916.629</ele>
        <time>2018-12-28T15:25:22Z</time>
      </trkpt>
      <trkpt lat="37.145590" lon="-113.490470">
        <ele>916.321</ele>
        <time>2018-12-28T15:25:42Z</time>
      </trkpt>
      <trkpt lat="37.145670" lon="-113.490270">
        <ele>915.908</ele>
        <time>2018-12-28T15:26:02Z</time>
      </trkpt>
      <trkpt lat="37.145760" lon="-113.490030">
        <ele>915.629</ele>
        <time>2018-12-28T15:26:22Z</time>
      </trkpt>
      <trkpt lat="37.145860" lon="-113.489770">
        <ele>915.977</ele>
        <time>2018-12-28T15:26:42Z</time>
      </trkpt>
      <trkpt lat="37.146040" lon="-113.489330">
        <ele>916.732</ele>
        <time>2018-12-28T15:27:02Z</time>
      </trkpt>
      <trkpt lat="37.146270" lon="-113.488800">
        <ele>917.863</ele>
        <time>2018-12-28T15:27:22Z</time>
      </trkpt>
      <trkpt lat="37.146430" lon="-113.488460">
        <ele>918.657</ele>
        <time>2018-12-28T15:27:42Z</time>
      </trkpt>
      <trkpt lat="37.146550" lon="-113.488210">
        <ele>919.391</ele>
        <time>2018-12-28T15:28:02Z</time>
      </trkpt>
      <trkpt lat="37.146730" lon="-113.487850">
        <ele>919.840</ele>
        <time>2018-12-28T15:28:22Z</time>
      </trkpt>
      <trkpt lat="37.146920" lon="-113.487500">
        <ele>920.065</ele>
        <time>2018-12-28T15:28:42Z</time>
      </trkpt>
      <trkpt lat="37.147000" lon="-113.487360">
        <ele>920.082</ele>
        <time>2018-12-28T15:29:02Z</time>
      </trkpt>
      <trkpt lat="37.147070" lon="-113.487230">
        <ele>919.843</ele>
        <time>2018-12-28T15:29:22Z</time>
      </trkpt>
      <trkpt lat="37.147210" lon="-113.487000">
        <ele>919.417</ele>
        <time>2018-12-28T15:29:42Z</time>
      </trkpt>
      <trkpt lat="37.147430" lon="-113.486620">
        <ele>918.608</ele>
        <time>2018-12-28T15:30:02Z</time>
      </trkpt>
      <trkpt lat="37.147720" lon="-113.486170">
        <ele>917.391</ele>
        <time>2018-12-28T15:30:22Z</time>
      </trkpt>
      <trkpt lat="37.148060" lon="-113.485670">
        <ele>920.029</ele>
        <time>2018-12-28T15:30:42Z</time>
      </trkpt>
      <trkpt lat="37.148320" lon="-113.485290">
        <ele>922.324</ele>
        <time>2018-12-28T15:31:02Z</time>
      </trkpt>
      <trkpt lat="37.148650" lon="-113.484850">
        <ele>924.615</ele>
        <time>2018-12-28T15:31:22Z</time>
      </trkpt>
      <trkpt lat="37.148800" lon="-113.484670">
        <ele>925.419</ele>
        <time>2018-12-28T15:31:42Z</time>
      </trkpt>
      <trkpt lat="37.149130" lon="-113.484260">
        <ele>926.493</ele>
        <time>2018-12-28T15:32:02Z</time>
      </trkpt>
      <trkpt lat="37.149280" lon="-113.484060">
        <ele>927.562</ele>
        <time>2018-12-28T15:32:22Z</time>
      </trkpt>
      <trkpt lat="37.149730" lon="-113.483560">
        <ele>928.647</ele>
        <time>2018-12-28T15:32:42Z</time>
      </trkpt>
      <trkpt lat="37.150100" lon="-113.483190">
        <ele>929.166</ele>
        <time>2018-12-28T15:33:02Z</time>
      </trkpt>
      <trkpt lat="37.150200" lon="-113.483090">
        <ele>929.229</ele>
        <time>2018-12-28T15:33:22Z</time>
      </trkpt>
      <trkpt lat="37.151170" lon="-113.482150">
        <ele>931.021</ele>
        <time>2018-12-28T15:33:42Z</time>
      </trkpt>
      <trkpt lat="37.152990" lon="-113.480380">
        <ele>941.608</ele>
        <time>2018-12-28T15:34:02Z</time>
      </trkpt>
      <trkpt lat="37.156510" lon="-113.476990">
        <ele>959.069</ele>
        <time>2018-12-28T15:34:22Z</time>
      </trkpt>
      <trkpt lat="37.157140" lon="-113.476370">
        <ele>963.557</ele>
        <time>2018-12-28T15:34:42Z</time>
      </trkpt>
      <trkpt lat="37.157460" lon="-113.476030">
        <ele>966.762</ele>
        <time>2018-12-28T15:35:02Z</time>
      </trkpt>
      <trkpt lat="37.157640" lon="-113.475830">
        <ele>967.313</ele>
        <time>2018-12-28T15:35:22Z</time>
      </trkpt>
      <trkpt lat="37.157790" lon="-113.475640">
        <ele>966.967</ele>
        <time>2018-12-28T15:35:42Z</time>
      </trkpt>
      <trkpt lat="37.158070" lon="-113.475260">
        <ele>965.911</ele>
        <time>2018-12-28T15:36:02Z</time>
      </trkpt>
      <trkpt lat="37.158240" lon="-113.474990">
        <ele>966.190</ele>
        <time>2018-12-28T15:36:22Z</time>
      </trkpt>
      <trkpt lat="37.158450" lon="-113.474640">
        <ele>968.115</ele>
        <time>2018-12-28T15:36:42Z</time>
      </trkpt>
      <trkpt lat="37.158580" lon="-113.474390">
        <ele>968.887</ele>
        <time>2018-12-28T15:37:02Z</time>
      </trkpt>
      <trkpt lat="37.158770" lon="-113.473990">
        <ele>967.242</ele>
        <time>2018-12-28T15:37:22Z</time>
      </trkpt>
      <trkpt lat="37.158900" lon="-113.473700">
        <ele>967.426</ele>
        <time>2018-12-28T15:37:42Z</time>
      </trkpt>
      <trkpt lat="37.159010" lon="-113.473370">
        <ele>972.108</ele>
        <time>2018-12-28T15:38:02Z</time>
      </trkpt>
      <trkpt lat="37.159100" lon="-113.473130">
        <ele>974.571</ele>
        <time>2018-12-28T15:38:22Z</time>
      </trkpt>
      <trkpt lat="37.159210" lon="-113.472750">
        <ele>981.079</ele>
        <time>2018-12-28T15:38:42Z</time>
      </trkpt>
      <trkpt lat="37.159330" lon="-113.472300">
        <ele>985.454</ele>
        <time>2018-12-28T15:39:02Z</time>
      </trkpt>
      <trkpt lat="37.159400" lon="-113.472030">
        <ele>986.575</ele>
        <time>2018-12-28T15:39:22Z</time>
      </trkpt>
      <trkpt lat="37.159640" lon="-113.471120">
        <ele>982.519</ele>
        <time>2018-12-28T15:39:42Z</time>
      </trkpt>
      <trkpt lat="37.159900" lon="-113.470110">
        <ele>980.013</ele>
        <time>2018-12-28T15:40:02Z</time>
      </trkpt>
      <trkpt lat="37.160040" lon="-113.469560">
        <ele>979.132</ele>
        <time>2018-12-28T15:40:22Z</time>
      </trkpt>
      <trkpt lat="37.160340" lon="-113.468390">
        <ele>978.837</ele>
        <time>2018-12-28T15:40:42Z</time>
      </trkpt>
      <trkpt lat="37.160530" lon="-113.467650">
        <ele>978.868</ele>
        <time>2018-12-28T15:41:02Z</time>
      </trkpt>
      <trkpt lat="37.160780" lon="-113.466690">
        <ele>978.642</ele>
        <time>2018-12-28T15:41:22Z</time>
      </trkpt>
      <trkpt lat="37.161050" lon="-113.465740">
        <ele>978.926</ele>
        <time>2018-12-28T15:41:42Z</time>
      </trkpt>
      <trkpt lat="37.161280" lon="-113.464970">
        <ele>979.108</ele>
        <time>2018-12-28T15:42:02Z</time>
      </trkpt>
      <trkpt lat="37.161400" lon="-113.464560">
        <ele>979.589</ele>
        <time>2018-12-28T15:42:22Z</time>
      </trkpt>
      <trkpt lat="37.161530" lon="-113.464130">
        <ele>980.667</ele>
        <time>2018-12-28T15:42:42Z</time>
      </trkpt>
      <trkpt lat="37.161840" lon="-113.463160">
        <ele>980.422</ele>
        <time>2018-12-28T15:43:02Z</time>
      </trkpt>
      <trkpt lat="37.162190" lon="-113.462060">
        <ele>976.973</ele>
        <time>2018-12-28T15:43:22Z</time>
      </trkpt>
      <trkpt lat="37.162560" lon="-113.461000">
        <ele>973.737</ele>
        <time>2018-12-28T15:43:42Z</time>
      </trkpt>
      <trkpt lat="37.162790" lon="-113.460330">
        <ele>973.161</ele>
        <time>2018-12-28T15:44:02Z</time>
      </trkpt>
      <trkpt lat="37.162920" lon="-113.459970">
        <ele>972.920</ele>
        <time>2018-12-28T15:44:22Z</time>
      </trkpt>
      <trkpt lat="37.163100" lon="-113.459490">
        <ele>972.665</ele>
        <time>2018-12-28T15:44:42Z</time>
      </trkpt>
      <trkpt lat="37.163630" lon="-113.458070">
        <ele>967.077</ele>
        <time>2018-12-28T15:45:02Z</time>
      </trkpt>
      <trkpt lat="37.163990" lon="-113.457160">
        <ele>967.161</ele>
        <time>2018-12-28T15:45:22Z</time>
      </trkpt>
      <trkpt lat="37.164630" lon="-113.455600">
        <ele>965.927</ele>
        <time>2018-12-28T15:45:42Z</time>
      </trkpt>
      <trkpt lat="37.165160" lon="-113.454350">
        <ele>965.208</ele>
        <time>2018-12-28T15:46:02Z</time>
      </trkpt>
      <trkpt lat="37.165390" lon="-113.453820">
        <ele>965.220</ele>
        <time>2018-12-28T15:46:22Z</time>
      </trkpt>
      <trkpt lat="37.165590" lon="-113.453360">
        <ele>965.218</ele>
        <time>2018-12-28T15:46:42Z</time>
      </trkpt>
      <trkpt lat="37.165585" lon="-113.453356">
        <ele>965.273</ele>
        <time>2018-12-28T15:47:02Z</time>
      </trkpt>
      <trkpt lat="37.165590" lon="-113.453270">
        <ele>965.064</ele>
        <time>2018-12-28T15:47:22Z</time>
      </trkpt>
      <trkpt lat="37.165590" lon="-113.453240">
        <ele>964.948</ele>
        <time>2018-12-28T15:47:42Z</time>
      </trkpt>
      <trkpt lat="37.165600" lon="-113.453210">
        <ele>964.992</ele>
        <time>2018-12-28T15:48:02Z</time>
      </trkpt>
      <trkpt lat="37.165610" lon="-113.453170">
        <ele>964.931</ele>
        <time>2018-12-28T15:48:22Z</time>
      </trkpt>
      <trkpt lat="37.165720" lon="-113.452880">
        <ele>965.016</ele>
        <time>2018-12-28T15:48:42Z</time>
      </trkpt>
      <trkpt lat="37.165800" lon="-113.452670">
        <ele>964.866</ele>
        <time>2018-12-28T15:49:02Z</time>
      </trkpt>
      <trkpt lat="37.165880" lon="-113.452440">
        <ele>964.629</ele>
        <time>2018-12-28T15:49:22Z</time>
      </trkpt>
      <trkpt lat="37.165980" lon="-113.452130">
        <ele>964.821</ele>
        <time>2018-12-28T15:49:42Z</time>
      </trkpt>
      <trkpt lat="37.166010" lon="-113.452030">
        <ele>964.708</ele>
        <time>2018-12-28T15:50:02Z</time>
      </trkpt>
      <trkpt lat="37.166040" lon="-113.451940">
        <ele>964.719</ele>
        <time>2018-12-28T15:50:22Z</time>
      </trkpt>
      <trkpt lat="37.166080" lon="-113.451810">
        <ele>964.627</ele>
        <time>2018-12-28T15:50:42Z</time>
      </trkpt>
      <trkpt lat="37.166110" lon="-113.451700">
        <ele>964.572</ele>
        <time>2018-12-28T15:51:02Z</time>
      </trkpt>
      <trkpt lat="37.166160" lon="-113.451530">
        <ele>964.433</ele>
        <time>2018-12-28T15:51:22Z</time>
      </trkpt>
      <trkpt lat="37.166180" lon="-113.451460">
        <ele>964.317</ele>
        <time>2018-12-28T15:51:42Z</time>
      </trkpt>
      <trkpt lat="37.166190" lon="-113.451390">
        <ele>964.281</ele>
        <time>2018-12-28T15:52:02Z</time>
      </trkpt>
      <trkpt lat="37.166210" lon="-113.451310">
        <ele>964.140</ele>
        <time>2018-12-28T15:52:22Z</time>
      </trkpt>
      <trkpt lat="37.166220" lon="-113.451270">
        <ele>964.185</ele>
        <time>2018-12-28T15:52:42Z</time>
      </trkpt>
      <trkpt lat="37.166220" lon="-113.451250">
        <ele>964.029</ele>
        <time>2018-12-28T15:53:02Z</time>
      </trkpt>
      <trkpt lat="37.166240" lon="-113.451130">
        <ele>963.600</ele>
        <time>2018-12-28T15:53:22Z</time>
      </trkpt>
      <trkpt lat="37.166260" lon="-113.451020">
        <ele>963.220</ele>
        <time>2018-12-28T15:53:42Z</time>
      </trkpt>
      <trkpt lat="37.166270" lon="-113.450900">
        <ele>962.408</ele>
        <time>2018-12-28T15:54:02Z</time>
      </trkpt>
      <trkpt lat="37.166280" lon="-113.450770">
        <ele>961.315</ele>
        <time>2018-12-28T15:54:22Z</time>
      </trkpt>
      <trkpt lat="37.166280" lon="-113.450670">
        <ele>960.583</ele>
        <time>2018-12-28T15:54:42Z</time>
      </trkpt>
      <trkpt lat="37.166290" lon="-113.450350">
        <ele>958.528</ele>
        <time>2018-12-28T15:55:02Z</time>
      </trkpt>
      <trkpt lat="37.166292" lon="-113.450353">
        <ele>958.669</ele>
        <time>2018-12-28T15:55:22Z</time>
      </trkpt>
      <trkpt lat="37.166250" lon="-113.450150">
        <ele>956.893</ele>
        <time>2018-12-28T15:55:42Z</time>
      </trkpt>
      <trkpt lat="37.166230" lon="-113.449990">
        <ele>955.817</ele>
        <time>2018-12-28T15:56:02Z</time>
      </trkpt>
      <trkpt lat="37.166220" lon="-113.449850">
        <ele>955.296</ele>
        <time>2018-12-28T15:56:22Z</time>
      </trkpt>
      <trkpt lat="37.166190" lon="-113.449670">
        <ele>954.731</ele>
        <time>2018-12-28T15:56:42Z</time>
      </trkpt>
      <trkpt lat="37.166170" lon="-113.449540">
        <ele>954.473</ele>
        <time>2018-12-28T15:57:02Z</time>
      </trkpt>
      <trkpt lat="37.166120" lon="-113.449310">
        <ele>954.185</ele>
        <time>2018-12-28T15:57:22Z</time>
      </trkpt>
      <trkpt lat="37.166040" lon="-113.449020">
        <ele>953.613</ele>
        <time>2018-12-28T15:57:42Z</time>
      </trkpt>
      <trkpt lat="37.165970" lon="-113.448830">
        <ele>953.008</ele>
        <time>2018-12-28T15:58:02Z</time>
      </trkpt>
      <trkpt lat="37.165920" lon="-113.448710">
        <ele>952.690</ele>
        <time>2018-12-28T15:58:22Z</time>
      </trkpt>
      <trkpt lat="37.165780" lon="-113.448420">
        <ele>952.388</ele>
        <time>2018-12-28T15:58:42Z</time>
      </trkpt>
      <trkpt lat="37.165680" lon="-113.448250">
        <ele>953.173</ele>
        <time>2018-12-28T15:59:02Z</time>
      </trkpt>
      <trkpt lat="37.165580" lon="-113.448080">
        <ele>950.964</ele>
        <time>2018-12-28T15:59:22Z</time>
      </trkpt>
      <trkpt lat="37.165490" lon="-113.447910">
        <ele>951.288</ele>
        <time>2018-12-28T15:59:42Z</time>
      </trkpt>
      <trkpt lat="37.165480" lon="-113.447900">
        <ele>951.382</ele>
        <time>2018-12-28T16:00:02Z</time>
      </trkpt>
      <trkpt lat="37.165470" lon="-113.447880">
        <ele>951.521</ele>
        <time>2018-12-28T16:00:22Z</time>
      </trkpt>
      <trkpt lat="37.165470" lon="-113.447860">
        <ele>951.616</ele>
        <time>2018-12-28T16:00:42Z</time>
      </trkpt>
      <trkpt lat="37.165460" lon="-113.447840">
        <ele>951.841</ele>
        <time>2018-12-28T16:01:02Z</time>
      </trkpt>
      <trkpt lat="37.165460" lon="-113.447820">
        <ele>951.881</ele>
        <time>2018-12-28T16:01:22Z</time>
      </trkpt>
      <trkpt lat="37.165460" lon="-113.447740">
        <ele>952.109</ele>
        <time>2018-12-28T16:01:42Z</time>
      </trkpt>
      <trkpt lat="37.165370" lon="-113.447610">
        <ele>952.408</ele>
        <time>2018-12-28T16:02:02Z</time>
      </trkpt>
      <trkpt lat="37.164840" lon="-113.446820">
        <ele>950.517</ele>
        <time>2018-12-28T16:02:22Z</time>
      </trkpt>
      <trkpt lat="37.163880" lon="-113.445350">
        <ele>944.385</ele>
        <time>2018-12-28T16:02:42Z</time>
      </trkpt>
      <trkpt lat="37.163600" lon="-113.444910">
        <ele>942.970</ele>
        <time>2018-12-28T16:03:02Z</time>
      </trkpt>
      <trkpt lat="37.163450" lon="-113.444710">
        <ele>942.421</ele>
        <time>2018-12-28T16:03:22Z</time>
      </trkpt>
      <trkpt lat="37.163440" lon="-113.444690">
        <ele>942.455</ele>
        <time>2018-12-28T16:03:42Z</time>
      </trkpt>
      <trkpt lat="37.163380" lon="-113.444600">
        <ele>942.289</ele>
        <time>2018-12-28T16:04:02Z</time>
      </trkpt>
      <trkpt lat="37.162480" lon="-113.443300">
        <ele>940.338</ele>
        <time>2018-12-28T16:04:22Z</time>
      </trkpt>
      <trkpt lat="37.161890" lon="-113.442370">
        <ele>950.243</ele>
        <time>2018-12-28T16:04:42Z</time>
      </trkpt>
      <trkpt lat="37.161210" lon="-113.441320">
        <ele>952.754</ele>
        <time>2018-12-28T16:05:02Z</time>
      </trkpt>
      <trkpt lat="37.161100" lon="-113.441140">
        <ele>953.856</ele>
        <time>2018-12-28T16:05:22Z</time>
      </trkpt>
      <trkpt lat="37.161000" lon="-113.440920">
        <ele>952.411</ele>
        <time>2018-12-28T16:05:42Z</time>
      </trkpt>
      <trkpt lat="37.160930" lon="-113.440790">
        <ele>952.208</ele>
        <time>2018-12-28T16:06:02Z</time>
      </trkpt>
      <trkpt lat="37.160810" lon="-113.440500">
        <ele>952.428</ele>
        <time>2018-12-28T16:06:22Z</time>
      </trkpt>
      <trkpt lat="37.160700" lon="-113.440230">
        <ele>951.666</ele>
        <time>2018-12-28T16:06:42Z</time>
      </trkpt>
      <trkpt lat="37.160590" lon="-113.439930">
        <ele>951.661</ele>
        <time>2018-12-28T16:07:02Z</time>
      </trkpt>
      <trkpt lat="37.160490" lon="-113.439560">
        <ele>951.892</ele>
        <time>2018-12-28T16:07:22Z</time>
      </trkpt>
      <trkpt lat="37.160430" lon="-113.439340">
        <ele>951.976</ele>
        <time>2018-12-28T16:07:42Z</time>
      </trkpt>
      <trkpt lat="37.160380" lon="-113.439130">
        <ele>951.990</ele>
        <time>2018-12-28T16:08:02Z</time>
      </trkpt>
      <trkpt lat="37.160330" lon="-113.438840">
        <ele>951.999</ele>
        <time>2018-12-28T16:08:22Z</time>
      </trkpt>
      <trkpt lat="37.160320" lon="-113.438770">
        <ele>951.944</ele>
        <time>2018-12-28T16:08:42Z</time>
      </trkpt>
      <trkpt lat="37.160270" lon="-113.438440">
        <ele>951.921</ele>
        <time>2018-12-28T16:09:02Z</time>
      </trkpt>
      <trkpt lat="37.160240" lon="-113.438160">
        <ele>951.941</ele>
        <time>2018-12-28T16:09:22Z</time>
      </trkpt>
      <trkpt lat="37.160230" lon="-113.437960">
        <ele>951.905</ele>
        <time>2018-12-28T16:09:42Z</time>
      </trkpt>
      <trkpt lat="37.160220" lon="-113.437850">
        <ele>951.908</ele>
        <time>2018-12-28T16:10:02Z</time>
      </trkpt>
      <trkpt lat="37.160210" lon="-113.437500">
        <ele>951.915</ele>
        <time>2018-12-28T16:10:22Z</time>
      </trkpt>
      <trkpt lat="37.160210" lon="-113.437460">
        <ele>951.963</ele>
        <time>2018-12-28T16:10:42Z</time>
      </trkpt>
      <trkpt lat="37.160220" lon="-113.437160">
        <ele>951.958</ele>
        <time>2018-12-28T16:11:02Z</time>
      </trkpt>
      <trkpt lat="37.160230" lon="-113.437020">
        <ele>951.989</ele>
        <time>2018-12-28T16:11:22Z</time>
      </trkpt>
      <trkpt lat="37.160240" lon="-113.436890">
        <ele>951.913</ele>
        <time>2018-12-28T16:11:42Z</time>
      </trkpt>
      <trkpt lat="37.160260" lon="-113.436630">
        <ele>951.957</ele>
        <time>2018-12-28T16:12:02Z</time>
      </trkpt>
      <trkpt lat="37.160290" lon="-113.436350">
        <ele>952.176</ele>
        <time>2018-12-28T16:12:22Z</time>
      </trkpt>
      <trkpt lat="37.160370" lon="-113.435870">
        <ele>953.331</ele>
        <time>2018-12-28T16:12:42Z</time>
      </trkpt>
      <trkpt lat="37.160440" lon="-113.435510">
        <ele>954.443</ele>
        <time>2018-12-28T16:13:02Z</time>
      </trkpt>
      <trkpt lat="37.160550" lon="-113.434860">
        <ele>957.264</ele>
        <time>2018-12-28T16:13:22Z</time>
      </trkpt>
      <trkpt lat="37.160740" lon="-113.433820">
        <ele>953.110</ele>
        <time>2018-12-28T16:13:42Z</time>
      </trkpt>
      <trkpt lat="37.160900" lon="-113.432930">
        <ele>952.108</ele>
        <time>2018-12-28T16:14:02Z</time>
      </trkpt>
      <trkpt lat="37.161030" lon="-113.432150">
        <ele>953.157</ele>
        <time>2018-12-28T16:14:22Z</time>
      </trkpt>
      <trkpt lat="37.161090" lon="-113.431850">
        <ele>953.415</ele>
        <time>2018-12-28T16:14:42Z</time>
      </trkpt>
      <trkpt lat="37.161620" lon="-113.428860">
        <ele>952.040</ele>
        <time>2018-12-28T16:15:02Z</time>
      </trkpt>
      <trkpt lat="37.161690" lon="-113.428500">
        <ele>951.971</ele>
        <time>2018-12-28T16:15:22Z</time>
      </trkpt>
      <trkpt lat="37.161830" lon="-113.427800">
        <ele>951.495</ele>
        <time>2018-12-28T16:15:42Z</time>
      </trkpt>
      <trkpt lat="37.161950" lon="-113.427330">
        <ele>951.329</ele>
        <time>2018-12-28T16:16:02Z</time>
      </trkpt>
      <trkpt lat="37.162030" lon="-113.427060">
        <ele>951.238</ele>
        <time>2018-12-28T16:16:22Z</time>
      </trkpt>
      <trkpt lat="37.162170" lon="-113.426620">
        <ele>951.173</ele>
        <time>2018-12-28T16:16:42Z</time>
      </trkpt>
      <trkpt lat="37.162310" lon="-113.426240">
        <ele>950.375</ele>
        <time>2018-12-28T16:17:02Z</time>
      </trkpt>
      <trkpt lat="37.162400" lon="-113.426010">
        <ele>949.728</ele>
        <time>2018-12-28T16:17:22Z</time>
      </trkpt>
      <trkpt lat="37.162670" lon="-113.425380">
        <ele>945.120</ele>
        <time>2018-12-28T16:17:42Z</time>
      </trkpt>
      <trkpt lat="37.162870" lon="-113.424970">
        <ele>947.108</ele>
        <time>2018-12-28T16:18:02Z</time>
      </trkpt>
      <trkpt lat="37.163090" lon="-113.424570">
        <ele>946.510</ele>
        <time>2018-12-28T16:18:22Z</time>
      </trkpt>
      <trkpt lat="37.163340" lon="-113.424150">
        <ele>941.358</ele>
        <time>2018-12-28T16:18:42Z</time>
      </trkpt>
      <trkpt lat="37.163580" lon="-113.423770">
        <ele>937.123</ele>
        <time>2018-12-28T16:19:02Z</time>
      </trkpt>
      <trkpt lat="37.164210" lon="-113.422830">
        <ele>933.634</ele>
        <time>2018-12-28T16:19:22Z</time>
      </trkpt>
      <trkpt lat="37.164950" lon="-113.421740">
        <ele>923.788</ele>
        <time>2018-12-28T16:19:42Z</time>
      </trkpt>
      <trkpt lat="37.165140" lon="-113.421460">
        <ele>922.152</ele>
        <time>2018-12-28T16:20:02Z</time>
      </trkpt>
      <trkpt lat="37.165320" lon="-113.421190">
        <ele>922.411</ele>
        <time>2018-12-28T16:20:22Z</time>
      </trkpt>
      <trkpt lat="37.165520" lon="-113.420880">
        <ele>921.536</ele>
        <time>2018-12-28T16:20:42Z</time>
      </trkpt>
      <trkpt lat="37.165830" lon="-113.420360">
        <ele>919.377</ele>
        <time>2018-12-28T16:21:02Z</time>
      </trkpt>
      <trkpt lat="37.166140" lon="-113.419790">
        <ele>914.761</ele>
        <time>2018-12-28T16:21:22Z</time>
      </trkpt>
      <trkpt lat="37.166320" lon="-113.419440">
        <ele>913.527</ele>
        <time>2018-12-28T16:21:42Z</time>
      </trkpt>
      <trkpt lat="37.166480" lon="-113.419100">
        <ele>912.508</ele>
        <time>2018-12-28T16:22:02Z</time>
      </trkpt>
      <trkpt lat="37.166590" lon="-113.418860">
        <ele>912.230</ele>
        <time>2018-12-28T16:22:22Z</time>
      </trkpt>
      <trkpt lat="37.166730" lon="-113.418540">
        <ele>911.068</ele>
        <time>2018-12-28T16:22:42Z</time>
      </trkpt>
      <trkpt lat="37.166890" lon="-113.418150">
        <ele>909.713</ele>
        <time>2018-12-28T16:23:02Z</time>
      </trkpt>
      <trkpt lat="37.167090" lon="-113.417620">
        <ele>909.934</ele>
        <time>2018-12-28T16:23:22Z</time>
      </trkpt>
      <trkpt lat="37.167170" lon="-113.417400">
        <ele>910.048</ele>
        <time>2018-12-28T16:23:42Z</time>
      </trkpt>
      <trkpt lat="37.167360" lon="-113.416800">
        <ele>908.842</ele>
        <time>2018-12-28T16:24:02Z</time>
      </trkpt>
      <trkpt lat="37.167510" lon="-113.416280">
        <ele>906.241</ele>
        <time>2018-12-28T16:24:22Z</time>
      </trkpt>
      <trkpt lat="37.167600" lon="-113.415930">
        <ele>904.826</ele>
        <time>2018-12-28T16:24:42Z</time>
      </trkpt>
      <trkpt lat="37.167680" lon="-113.415600">
        <ele>905.492</ele>
        <time>2018-12-28T16:25:02Z</time>
      </trkpt>
      <trkpt lat="37.167750" lon="-113.415300">
        <ele>905.073</ele>
        <time>2018-12-28T16:25:22Z</time>
      </trkpt>
      <trkpt lat="37.167850" lon="-113.414810">
        <ele>903.520</ele>
        <time>2018-12-28T16:25:42Z</time>
      </trkpt>
      <trkpt lat="37.167920" lon="-113.414390">
        <ele>901.908</ele>
        <time>2018-12-28T16:26:02Z</time>
      </trkpt>
      <trkpt lat="37.167980" lon="-113.414010">
        <ele>901.262</ele>
        <time>2018-12-28T16:26:22Z</time>
      </trkpt>
      <trkpt lat="37.168050" lon="-113.413540">
        <ele>901.670</ele>
        <time>2018-12-28T16:26:42Z</time>
      </trkpt>
      <trkpt lat="37.168090" lon="-113.413170">
        <ele>900.965</ele>
        <time>2018-12-28T16:27:02Z</time>
      </trkpt>
      <trkpt lat="37.168110" lon="-113.412890">
        <ele>899.536</ele>
        <time>2018-12-28T16:27:22Z</time>
      </trkpt>
      <trkpt lat="37.168130" lon="-113.412610">
        <ele>898.270</ele>
        <time>2018-12-28T16:27:42Z</time>
      </trkpt>
      <trkpt lat="37.168150" lon="-113.412330">
        <ele>897.264</ele>
        <time>2018-12-28T16:28:02Z</time>
      </trkpt>
      <trkpt lat="37.168170" lon="-113.411820">
        <ele>895.563</ele>
        <time>2018-12-28T16:28:22Z</time>
      </trkpt>
      <trkpt lat="37.168190" lon="-113.411120">
        <ele>892.588</ele>
        <time>2018-12-28T16:28:42Z</time>
      </trkpt>
      <trkpt lat="37.168200" lon="-113.410760">
        <ele>891.255</ele>
        <time>2018-12-28T16:29:02Z</time>
      </trkpt>
      <trkpt lat="37.168210" lon="-113.410250">
        <ele>890.407</ele>
        <time>2018-12-28T16:29:22Z</time>
      </trkpt>
      <trkpt lat="37.168280" lon="-113.408150">
        <ele>884.717</ele>
        <time>2018-12-28T16:29:42Z</time>
      </trkpt>
      <trkpt lat="37.168240" lon="-113.408030">
        <ele>884.108</ele>
        <time>2018-12-28T16:30:02Z</time>
      </trkpt>
      <trkpt lat="37.168240" lon="-113.407860">
        <ele>883.658</ele>
        <time>2018-12-28T16:30:22Z</time>
      </trkpt>
      <trkpt lat="37.168280" lon="-113.406360">
        <ele>880.386</ele>
        <time>2018-12-28T16:30:42Z</time>
      </trkpt>
      <trkpt lat="37.168290" lon="-113.405940">
        <ele>879.161</ele>
        <time>2018-12-28T16:31:02Z</time>
      </trkpt>
      <trkpt lat="37.168310" lon="-113.405520">
        <ele>878.252</ele>
        <time>2018-12-28T16:31:22Z</time>
      </trkpt>
      <trkpt lat="37.168360" lon="-113.403900">
        <ele>876.386</ele>
        <time>2018-12-28T16:31:42Z</time>
      </trkpt>
      <trkpt lat="37.168350" lon="-113.403690">
        <ele>876.020</ele>
        <time>2018-12-28T16:32:02Z</time>
      </trkpt>
      <trkpt lat="37.168350" lon="-113.403420">
        <ele>875.579</ele>
        <time>2018-12-28T16:32:22Z</time>
      </trkpt>
      <trkpt lat="37.168320" lon="-113.403140">
        <ele>874.684</ele>
        <time>2018-12-28T16:32:42Z</time>
      </trkpt>
      <trkpt lat="37.168300" lon="-113.402970">
        <ele>874.021</ele>
        <time>2018-12-28T16:33:02Z</time>
      </trkpt>
      <trkpt lat="37.168280" lon="-113.402770">
        <ele>873.541</ele>
        <time>2018-12-28T16:33:22Z</time>
      </trkpt>
      <trkpt lat="37.168250" lon="-113.402520">
        <ele>872.705</ele>
        <time>2018-12-28T16:33:42Z</time>
      </trkpt>
      <trkpt lat="37.168210" lon="-113.402320">
        <ele>872.008</ele>
        <time>2018-12-28T16:34:02Z</time>
      </trkpt>
      <trkpt lat="37.168170" lon="-113.402160">
        <ele>871.365</ele>
        <time>2018-12-28T16:34:22Z</time>
      </trkpt>
      <trkpt lat="37.168110" lon="-113.401900">
        <ele>870.463</ele>
        <time>2018-12-28T16:34:42Z</time>
      </trkpt>
      <trkpt lat="37.168080" lon="-113.401770">
        <ele>869.928</ele>
        <time>2018-12-28T16:35:02Z</time>
      </trkpt>
      <trkpt lat="37.168040" lon="-113.401630">
        <ele>869.499</ele>
        <time>2018-12-28T16:35:22Z</time>
      </trkpt>
      <trkpt lat="37.167970" lon="-113.401380">
        <ele>868.723</ele>
        <time>2018-12-28T16:35:42Z</time>
      </trkpt>
      <trkpt lat="37.167890" lon="-113.401160">
        <ele>868.167</ele>
        <time>2018-12-28T16:36:02Z</time>
      </trkpt>
      <trkpt lat="37.167830" lon="-113.401010">
        <ele>867.786</ele>
        <time>2018-12-28T16:36:22Z</time>
      </trkpt>
      <trkpt lat="37.167680" lon="-113.400650">
        <ele>867.171</ele>
        <time>2018-12-28T16:36:42Z</time>
      </trkpt>
      <trkpt lat="37.167570" lon="-113.400410">
        <ele>866.877</ele>
        <time>2018-12-28T16:37:02Z</time>
      </trkpt>
      <trkpt lat="37.167320" lon="-113.399960">
        <ele>866.461</ele>
        <time>2018-12-28T16:37:22Z</time>
      </trkpt>
      <trkpt lat="37.167110" lon="-113.399620">
        <ele>864.227</ele>
        <time>2018-12-28T16:37:42Z</time>
      </trkpt>
      <trkpt lat="37.166970" lon="-113.399420">
        <ele>859.908</ele>
        <time>2018-12-28T16:38:02Z</time>
      </trkpt>
      <trkpt lat="37.166890" lon="-113.399320">
        <ele>858.490</ele>
        <time>2018-12-28T16:38:22Z</time>
      </trkpt>
      <trkpt lat="37.166800" lon="-113.399200">
        <ele>857.498</ele>
        <time>2018-12-28T16:38:42Z</time>
      </trkpt>
      <trkpt lat="37.166650" lon="-113.399030">
        <ele>857.343</ele>
        <time>2018-12-28T16:39:02Z</time>
      </trkpt>
      <trkpt lat="37.166480" lon="-113.398840">
        <ele>856.834</ele>
        <time>2018-12-28T16:39:22Z</time>
      </trkpt>
      <trkpt lat="37.166310" lon="-113.398680">
        <ele>856.638</ele>
        <time>2018-12-28T16:39:42Z</time>
      </trkpt>
      <trkpt lat="37.166220" lon="-113.398590">
        <ele>856.542</ele>
        <time>2018-12-28T16:40:02Z</time>
      </trkpt>
      <trkpt lat="37.166130" lon="-113.398520">
        <ele>856.211</ele>
        <time>2018-12-28T16:40:22Z</time>
      </trkpt>
      <trkpt lat="37.165950" lon="-113.398370">
        <ele>855.566</ele>
        <time>2018-12-28T16:40:42Z</time>
      </trkpt>
      <trkpt lat="37.165670" lon="-113.398150">
        <ele>854.076</ele>
        <time>2018-12-28T16:41:02Z</time>
      </trkpt>
      <trkpt lat="37.165290" lon="-113.397880">
        <ele>850.690</ele>
        <time>2018-12-28T16:41:22Z</time>
      </trkpt>
      <trkpt lat="37.164520" lon="-113.397320">
        <ele>847.319</ele>
        <time>2018-12-28T16:41:42Z</time>
      </trkpt>
      <trkpt lat="37.164040" lon="-113.396980">
        <ele>846.608</ele>
        <time>2018-12-28T16:42:02Z</time>
      </trkpt>
      <trkpt lat="37.163860" lon="-113.396830">
        <ele>843.750</ele>
        <time>2018-12-28T16:42:22Z</time>
      </trkpt>
      <trkpt lat="37.163760" lon="-113.396750">
        <ele>845.988</ele>
        <time>2018-12-28T16:42:42Z</time>
      </trkpt>
      <trkpt lat="37.163670" lon="-113.396670">
        <ele>847.243</ele>
        <time>2018-12-28T16:43:02Z</time>
      </trkpt>
      <trkpt lat="37.163580" lon="-113.396600">
        <ele>846.144</ele>
        <time>2018-12-28T16:43:22Z</time>
      </trkpt>
      <trkpt lat="37.163490" lon="-113.396510">
        <ele>843.618</ele>
        <time>2018-12-28T16:43:42Z</time>
      </trkpt>
      <trkpt lat="37.163410" lon="-113.396420">
        <ele>844.892</ele>
        <time>2018-12-28T16:44:02Z</time>
      </trkpt>
      <trkpt lat="37.163240" lon="-113.396230">
        <ele>843.561</ele>
        <time>2018-12-28T16:44:22Z</time>
      </trkpt>
      <trkpt lat="37.163170" lon="-113.396140">
        <ele>842.226</ele>
        <time>2018-12-28T16:44:42Z</time>
      </trkpt>
      <trkpt lat="37.163040" lon="-113.395960">
        <ele>842.336</ele>
        <time>2018-12-28T16:45:02Z</time>
      </trkpt>
      <trkpt lat="37.162940" lon="-113.395830">
        <ele>841.917</ele>
        <time>2018-12-28T16:45:22Z</time>
      </trkpt>
      <trkpt lat="37.162850" lon="-113.395670">
        <ele>841.118</ele>
        <time>2018-12-28T16:45:42Z</time>
      </trkpt>
      <trkpt lat="37.162090" lon="-113.394390">
        <ele>846.308</ele>
        <time>2018-12-28T16:46:02Z</time>
      </trkpt>
      <trkpt lat="37.161800" lon="-113.393850">
        <ele>849.646</ele>
        <time>2018-12-28T16:46:22Z</time>
      </trkpt>
      <trkpt lat="37.161730" lon="-113.393690">
        <ele>850.534</ele>
        <time>2018-12-28T16:46:42Z</time>
      </trkpt>
      <trkpt lat="37.161680" lon="-113.393560">
        <ele>851.099</ele>
        <time>2018-12-28T16:47:02Z</time>
      </trkpt>
      <trkpt lat="37.161590" lon="-113.393300">
        <ele>851.890</ele>
        <time>2018-12-28T16:47:22Z</time>
      </trkpt>
      <trkpt lat="37.161510" lon="-113.393050">
        <ele>852.254</ele>
        <time>2018-12-28T16:47:42Z</time>
      </trkpt>
      <trkpt lat="37.161410" lon="-113.392650">
        <ele>852.878</ele>
        <time>2018-12-28T16:48:02Z</time>
      </trkpt>
      <trkpt lat="37.161380" lon="-113.392450">
        <ele>853.197</ele>
        <time>2018-12-28T16:48:22Z</time>
      </trkpt>
      <trkpt lat="37.161330" lon="-113.392130">
        <ele>853.992</ele>
        <time>2018-12-28T16:48:42Z</time>
      </trkpt>
      <trkpt lat="37.161310" lon="-113.391910">
        <ele>854.231</ele>
        <time>2018-12-28T16:49:02Z</time>
      </trkpt>
      <trkpt lat="37.161300" lon="-113.391670">
        <ele>854.361</ele>
        <time>2018-12-28T16:49:22Z</time>
      </trkpt>
      <trkpt lat="37.161290" lon="-113.391500">
        <ele>854.507</ele>
        <time>2018-12-28T16:49:42Z</time>
      </trkpt>
      <trkpt lat="37.161290" lon="-113.391340">
        <ele>854.908</ele>
        <time>2018-12-28T16:50:02Z</time>
      </trkpt>
      <trkpt lat="37.161310" lon="-113.390850">
        <ele>856.256</ele>
        <time>2018-12-28T16:50:22Z</time>
      </trkpt>
      <trkpt lat="37.161340" lon="-113.390640">
        <ele>856.874</ele>
        <time>2018-12-28T16:50:42Z</time>
      </trkpt>
      <trkpt lat="37.161380" lon="-113.390360">
        <ele>857.099</ele>
        <time>2018-12-28T16:51:02Z</time>
      </trkpt>
      <trkpt lat="37.161410" lon="-113.390220">
        <ele>856.880</ele>
        <time>2018-12-28T16:51:22Z</time>
      </trkpt>
      <trkpt lat="37.161440" lon="-113.390080">
        <ele>856.644</ele>
        <time>2018-12-28T16:51:42Z</time>
      </trkpt>
      <trkpt lat="37.161520" lon="-113.389740">
        <ele>856.028</ele>
        <time>2018-12-28T16:52:02Z</time>
      </trkpt>
      <trkpt lat="37.161590" lon="-113.389530">
        <ele>855.927</ele>
        <time>2018-12-28T16:52:22Z</time>
      </trkpt>
      <trkpt lat="37.161680" lon="-113.389280">
        <ele>856.522</ele>
        <time>2018-12-28T16:52:42Z</time>
      </trkpt>
      <trkpt lat="37.161770" lon="-113.389040">
        <ele>857.654</ele>
        <time>2018-12-28T16:53:02Z</time>
      </trkpt>
      <trkpt lat="37.161830" lon="-113.388920">
        <ele>858.056</ele>
        <time>2018-12-28T16:53:22Z</time>
      </trkpt>
      <trkpt lat="37.161890" lon="-113.388800">
        <ele>858.311</ele>
        <time>2018-12-28T16:53:42Z</time>
      </trkpt>
      <trkpt lat="37.162010" lon="-113.388580">
        <ele>858.708</ele>
        <time>2018-12-28T16:54:02Z</time>
      </trkpt>
      <trkpt lat="37.162120" lon="-113.388400">
        <ele>858.868</ele>
        <time>2018-12-28T16:54:22Z</time>
      </trkpt>
      <trkpt lat="37.162210" lon="-113.388230">
        <ele>858.876</ele>
        <time>2018-12-28T16:54:42Z</time>
      </trkpt>
      <trkpt lat="37.162280" lon="-113.388130">
        <ele>858.831</ele>
        <time>2018-12-28T16:55:02Z</time>
      </trkpt>
      <trkpt lat="37.162360" lon="-113.388010">
        <ele>858.852</ele>
        <time>2018-12-28T16:55:22Z</time>
      </trkpt>
      <trkpt lat="37.162590" lon="-113.387720">
        <ele>858.326</ele>
        <time>2018-12-28T16:55:42Z</time>
      </trkpt>
      <trkpt lat="37.162730" lon="-113.387520">
        <ele>858.310</ele>
        <time>2018-12-28T16:56:02Z</time>
      </trkpt>
      <trkpt lat="37.163020" lon="-113.387120">
        <ele>858.499</ele>
        <time>2018-12-28T16:56:22Z</time>
      </trkpt>
      <trkpt lat="37.163700" lon="-113.386190">
        <ele>860.624</ele>
        <time>2018-12-28T16:56:42Z</time>
      </trkpt>
      <trkpt lat="37.163850" lon="-113.385960">
        <ele>863.185</ele>
        <time>2018-12-28T16:57:02Z</time>
      </trkpt>
      <trkpt lat="37.164110" lon="-113.385540">
        <ele>865.589</ele>
        <time>2018-12-28T16:57:22Z</time>
      </trkpt>
      <trkpt lat="37.164240" lon="-113.385320">
        <ele>866.017</ele>
        <time>2018-12-28T16:57:42Z</time>
      </trkpt>
      <trkpt lat="37.164430" lon="-113.384970">
        <ele>864.608</ele>
        <time>2018-12-28T16:58:02Z</time>
      </trkpt>
      <trkpt lat="37.164490" lon="-113.384870">
        <ele>863.731</ele>
        <time>2018-12-28T16:58:22Z</time>
      </trkpt>
      <trkpt lat="37.164540" lon="-113.384770">
        <ele>862.839</ele>
        <time>2018-12-28T16:58:42Z</time>
      </trkpt>
      <trkpt lat="37.164600" lon="-113.384650">
        <ele>861.934</ele>
        <time>2018-12-28T16:59:02Z</time>
      </trkpt>
      <trkpt lat="37.164660" lon="-113.384530">
        <ele>861.065</ele>
        <time>2018-12-28T16:59:22Z</time>
      </trkpt>
      <trkpt lat="37.164830" lon="-113.384170">
        <ele>859.029</ele>
        <time>2018-12-28T16:59:42Z</time>
      </trkpt>
      <trkpt lat="37.164920" lon="-113.383940">
        <ele>858.373</ele>
        <time>2018-12-28T17:00:02Z</time>
      </trkpt>
      <trkpt lat="37.165060" lon="-113.383570">
        <ele>857.172</ele>
        <time>2018-12-28T17:00:22Z</time>
      </trkpt>
      <trkpt lat="37.165150" lon="-113.383320">
        <ele>856.347</ele>
        <time>2018-12-28T17:00:42Z</time>
      </trkpt>
      <trkpt lat="37.165250" lon="-113.383200">
        <ele>855.681</ele>
        <time>2018-12-28T17:01:02Z</time>
      </trkpt>
      <trkpt lat="37.165260" lon="-113.383180">
        <ele>855.561</ele>
        <time>2018-12-28T17:01:22Z</time>
      </trkpt>
      <trkpt lat="37.165380" lon="-113.382740">
        <ele>856.717</ele>
        <time>2018-12-28T17:01:42Z</time>
      </trkpt>
      <trkpt lat="37.165470" lon="-113.382360">
        <ele>859.208</ele>
        <time>2018-12-28T17:02:02Z</time>
      </trkpt>
      <trkpt lat="37.165560" lon="-113.381960">
        <ele>862.681</ele>
        <time>2018-12-28T17:02:22Z</time>
      </trkpt>
      <trkpt lat="37.165650" lon="-113.381560">
        <ele>865.549</ele>
        <time>2018-12-28T17:02:42Z</time>
      </trkpt>
      <trkpt lat="37.165760" lon="-113.381110">
        <ele>866.764</ele>
        <time>2018-12-28T17:03:02Z</time>
      </trkpt>
      <trkpt lat="37.165880" lon="-113.380630">
        <ele>869.475</ele>
        <time>2018-12-28T17:03:22Z</time>
      </trkpt>
      <trkpt lat="37.165960" lon="-113.380270">
        <ele>871.789</ele>
        <time>2018-12-28T17:03:42Z</time>
      </trkpt>
      <trkpt lat="37.166060" lon="-113.379860">
        <ele>873.693</ele>
        <time>2018-12-28T17:04:02Z</time>
      </trkpt>
      <trkpt lat="37.166100" lon="-113.379720">
        <ele>874.512</ele>
        <time>2018-12-28T17:04:22Z</time>
      </trkpt>
      <trkpt lat="37.166190" lon="-113.379330">
        <ele>876.497</ele>
        <time>2018-12-28T17:04:42Z</time>
      </trkpt>
      <trkpt lat="37.166190" lon="-113.379320">
        <ele>876.546</ele>
        <time>2018-12-28T17:05:02Z</time>
      </trkpt>
      <trkpt lat="37.166280" lon="-113.378960">
        <ele>877.588</ele>
        <time>2018-12-28T17:05:22Z</time>
      </trkpt>
      <trkpt lat="37.166360" lon="-113.378620">
        <ele>878.316</ele>
        <time>2018-12-28T17:05:42Z</time>
      </trkpt>
      <trkpt lat="37.166460" lon="-113.378230">
        <ele>880.708</ele>
        <time>2018-12-28T17:06:02Z</time>
      </trkpt>
      <trkpt lat="37.166970" lon="-113.376090">
        <ele>886.467</ele>
        <time>2018-12-28T17:06:22Z</time>
      </trkpt>
      <trkpt lat="37.167080" lon="-113.375580">
        <ele>886.545</ele>
        <time>2018-12-28T17:06:42Z</time>
      </trkpt>
      <trkpt lat="37.167500" lon="-113.373860">
        <ele>889.950</ele>
        <time>2018-12-28T17:07:02Z</time>
      </trkpt>
      <trkpt lat="37.167830" lon="-113.372490">
        <ele>891.621</ele>
        <time>2018-12-28T17:07:22Z</time>
      </trkpt>
      <trkpt lat="37.167890" lon="-113.372220">
        <ele>891.985</ele>
        <time>2018-12-28T17:07:42Z</time>
      </trkpt>
      <trkpt lat="37.167960" lon="-113.371880">
        <ele>892.429</ele>
        <time>2018-12-28T17:08:02Z</time>
      </trkpt>
      <trkpt lat="37.168010" lon="-113.371710">
        <ele>892.738</ele>
        <time>2018-12-28T17:08:22Z</time>
      </trkpt>
      <trkpt lat="37.168250" lon="-113.370650">
        <ele>894.293</ele>
        <time>2018-12-28T17:08:42Z</time>
      </trkpt>
      <trkpt lat="37.168480" lon="-113.369690">
        <ele>896.165</ele>
        <time>2018-12-28T17:09:02Z</time>
      </trkpt>
      <trkpt lat="37.168650" lon="-113.368940">
        <ele>898.268</ele>
        <time>2018-12-28T17:09:22Z</time>
      </trkpt>
      <trkpt lat="37.168660" lon="-113.368910">
        <ele>898.314</ele>
        <time>2018-12-28T17:09:42Z</time>
      </trkpt>
      <trkpt lat="37.168760" lon="-113.368480">
        <ele>899.308</ele>
        <time>2018-12-28T17:10:02Z</time>
      </trkpt>
      <trkpt lat="37.168810" lon="-113.368280">
        <ele>899.659</ele>
        <time>2018-12-28T17:10:22Z</time>
      </trkpt>
      <trkpt lat="37.168810" lon="-113.368260">
        <ele>899.787</ele>
        <time>2018-12-28T17:10:42Z</time>
      </trkpt>
      <trkpt lat="37.168950" lon="-113.367700">
        <ele>900.762</ele>
        <time>2018-12-28T17:11:02Z</time>
      </trkpt>
      <trkpt lat="37.169100" lon="-113.367040">
        <ele>901.783</ele>
        <time>2018-12-28T17:11:22Z</time>
      </trkpt>
      <trkpt lat="37.169150" lon="-113.366870">
        <ele>902.047</ele>
        <time>2018-12-28T17:11:42Z</time>
      </trkpt>
      <trkpt lat="37.169750" lon="-113.364320">
        <ele>907.271</ele>
        <time>2018-12-28T17:12:02Z</time>
      </trkpt>
      <trkpt lat="37.169990" lon="-113.363300">
        <ele>909.410</ele>
        <time>2018-12-28T17:12:22Z</time>
      </trkpt>
      <trkpt lat="37.170170" lon="-113.362530">
        <ele>911.245</ele>
        <time>2018-12-28T17:12:42Z</time>
      </trkpt>
      <trkpt lat="37.170550" lon="-113.360890">
        <ele>914.456</ele>
        <time>2018-12-28T17:13:02Z</time>
      </trkpt>
      <trkpt lat="37.171000" lon="-113.358950">
        <ele>919.759</ele>
        <time>2018-12-28T17:13:22Z</time>
      </trkpt>
      <trkpt lat="37.171620" lon="-113.356310">
        <ele>928.314</ele>
        <time>2018-12-28T17:13:42Z</time>
      </trkpt>
      <trkpt lat="37.171940" lon="-113.354930">
        <ele>933.408</ele>
        <time>2018-12-28T17:14:02Z</time>
      </trkpt>
      <trkpt lat="37.172400" lon="-113.352970">
        <ele>937.778</ele>
        <time>2018-12-28T17:14:22Z</time>
      </trkpt>
      <trkpt lat="37.172720" lon="-113.351610">
        <ele>942.216</ele>
        <time>2018-12-28T17:14:42Z</time>
      </trkpt>
      <trkpt lat="37.172800" lon="-113.351270">
        <ele>942.571</ele>
        <time>2018-12-28T17:15:02Z</time>
      </trkpt>
      <trkpt lat="37.172900" lon="-113.350730">
        <ele>943.972</ele>
        <time>2018-12-28T17:15:22Z</time>
      </trkpt>
      <trkpt lat="37.172940" lon="-113.350420">
        <ele>944.866</ele>
        <time>2018-12-28T17:15:42Z</time>
      </trkpt>
      <trkpt lat="37.172970" lon="-113.350170">
        <ele>945.550</ele>
        <time>2018-12-28T17:16:02Z</time>
      </trkpt>
      <trkpt lat="37.172990" lon="-113.349970">
        <ele>946.269</ele>
        <time>2018-12-28T17:16:22Z</time>
      </trkpt>
      <trkpt lat="37.173010" lon="-113.349680">
        <ele>947.114</ele>
        <time>2018-12-28T17:16:42Z</time>
      </trkpt>
      <trkpt lat="37.173020" lon="-113.349450">
        <ele>947.755</ele>
        <time>2018-12-28T17:17:02Z</time>
      </trkpt>
      <trkpt lat="37.173030" lon="-113.349140">
        <ele>948.707</ele>
        <time>2018-12-28T17:17:22Z</time>
      </trkpt>
      <trkpt lat="37.173030" lon="-113.348900">
        <ele>949.617</ele>
        <time>2018-12-28T17:17:42Z</time>
      </trkpt>
      <trkpt lat="37.173010" lon="-113.348100">
        <ele>952.508</ele>
        <time>2018-12-28T17:18:02Z</time>
      </trkpt>
      <trkpt lat="37.173000" lon="-113.347800">
        <ele>953.928</ele>
        <time>2018-12-28T17:18:22Z</time>
      </trkpt>
      <trkpt lat="37.173000" lon="-113.347600">
        <ele>955.286</ele>
        <time>2018-12-28T17:18:42Z</time>
      </trkpt>
      <trkpt lat="37.172990" lon="-113.347230">
        <ele>957.131</ele>
        <time>2018-12-28T17:19:02Z</time>
      </trkpt>
      <trkpt lat="37.172980" lon="-113.346790">
        <ele>959.722</ele>
        <time>2018-12-28T17:19:22Z</time>
      </trkpt>
      <trkpt lat="37.172980" lon="-113.346440">
        <ele>961.676</ele>
        <time>2018-12-28T17:19:42Z</time>
      </trkpt>
      <trkpt lat="37.172990" lon="-113.346090">
        <ele>962.870</ele>
        <time>2018-12-28T17:20:02Z</time>
      </trkpt>
      <trkpt lat="37.173010" lon="-113.345790">
        <ele>963.579</ele>
        <time>2018-12-28T17:20:22Z</time>
      </trkpt>
      <trkpt lat="37.173030" lon="-113.345460">
        <ele>964.294</ele>
        <time>2018-12-28T17:20:42Z</time>
      </trkpt>
      <trkpt lat="37.173060" lon="-113.345250">
        <ele>964.722</ele>
        <time>2018-12-28T17:21:02Z</time>
      </trkpt>
      <trkpt lat="37.173110" lon="-113.344770">
        <ele>965.362</ele>
        <time>2018-12-28T17:21:22Z</time>
      </trkpt>
      <trkpt lat="37.173190" lon="-113.344340">
        <ele>965.508</ele>
        <time>2018-12-28T17:21:42Z</time>
      </trkpt>
      <trkpt lat="37.173220" lon="-113.344210">
        <ele>965.908</ele>
        <time>2018-12-28T17:22:02Z</time>
      </trkpt>
      <trkpt lat="37.173280" lon="-113.343920">
        <ele>967.425</ele>
        <time>2018-12-28T17:22:22Z</time>
      </trkpt>
      <trkpt lat="37.173340" lon="-113.343670">
        <ele>969.153</ele>
        <time>2018-12-28T17:22:42Z</time>
      </trkpt>
      <trkpt lat="37.173430" lon="-113.343320">
        <ele>971.678</ele>
        <time>2018-12-28T17:23:02Z</time>
      </trkpt>
      <trkpt lat="37.173500" lon="-113.343120">
        <ele>972.969</ele>
        <time>2018-12-28T17:23:22Z</time>
      </trkpt>
      <trkpt lat="37.173530" lon="-113.343010">
        <ele>973.653</ele>
        <time>2018-12-28T17:23:42Z</time>
      </trkpt>
      <trkpt lat="37.173610" lon="-113.342750">
        <ele>974.717</ele>
        <time>2018-12-28T17:24:02Z</time>
      </trkpt>
      <trkpt lat="37.173690" lon="-113.342510">
        <ele>975.536</ele>
        <time>2018-12-28T17:24:22Z</time>
      </trkpt>
      <trkpt lat="37.173790" lon="-113.342210">
        <ele>976.311</ele>
        <time>2018-12-28T17:24:42Z</time>
      </trkpt>
      <trkpt lat="37.173910" lon="-113.341840">
        <ele>977.113</ele>
        <time>2018-12-28T17:25:02Z</time>
      </trkpt>
      <trkpt lat="37.174020" lon="-113.341520">
        <ele>977.643</ele>
        <time>2018-12-28T17:25:22Z</time>
      </trkpt>
      <trkpt lat="37.174160" lon="-113.341100">
        <ele>978.407</ele>
        <time>2018-12-28T17:25:42Z</time>
      </trkpt>
      <trkpt lat="37.174300" lon="-113.340690">
        <ele>979.208</ele>
        <time>2018-12-28T17:26:02Z</time>
      </trkpt>
      <trkpt lat="37.174580" lon="-113.339860">
        <ele>981.014</ele>
        <time>2018-12-28T17:26:22Z</time>
      </trkpt>
      <trkpt lat="37.174750" lon="-113.339360">
        <ele>982.012</ele>
        <time>2018-12-28T17:26:42Z</time>
      </trkpt>
      <trkpt lat="37.174760" lon="-113.339320">
        <ele>982.157</ele>
        <time>2018-12-28T17:27:02Z</time>
      </trkpt>
      <trkpt lat="37.174880" lon="-113.338960">
        <ele>982.758</ele>
        <time>2018-12-28T17:27:22Z</time>
      </trkpt>
      <trkpt lat="37.175260" lon="-113.337830">
        <ele>984.832</ele>
        <time>2018-12-28T17:27:42Z</time>
      </trkpt>
      <trkpt lat="37.175500" lon="-113.337110">
        <ele>985.876</ele>
        <time>2018-12-28T17:28:02Z</time>
      </trkpt>
      <trkpt lat="37.175620" lon="-113.336770">
        <ele>986.285</ele>
        <time>2018-12-28T17:28:22Z</time>
      </trkpt>
      <trkpt lat="37.175680" lon="-113.336570">
        <ele>986.580</ele>
        <time>2018-12-28T17:28:42Z</time>
      </trkpt>
      <trkpt lat="37.175780" lon="-113.336270">
        <ele>987.059</ele>
        <time>2018-12-28T17:29:02Z</time>
      </trkpt>
      <trkpt lat="37.175790" lon="-113.336230">
        <ele>987.103</ele>
        <time>2018-12-28T17:29:22Z</time>
      </trkpt>
      <trkpt lat="37.175910" lon="-113.335830">
        <ele>987.823</ele>
        <time>2018-12-28T17:29:42Z</time>
      </trkpt>
      <trkpt lat="37.175970" lon="-113.335600">
        <ele>988.108</ele>
        <time>2018-12-28T17:30:02Z</time>
      </trkpt>
      <trkpt lat="37.176050" lon="-113.335270">
        <ele>988.558</ele>
        <time>2018-12-28T17:30:22Z</time>
      </trkpt>
      <trkpt lat="37.176120" lon="-113.334950">
        <ele>989.046</ele>
        <time>2018-12-28T17:30:42Z</time>
      </trkpt>
      <trkpt lat="37.176180" lon="-113.334610">
        <ele>989.611</ele>
        <time>2018-12-28T17:31:02Z</time>
      </trkpt>
      <trkpt lat="37.176220" lon="-113.334330">
        <ele>990.312</ele>
        <time>2018-12-28T17:31:22Z</time>
      </trkpt>
      <trkpt lat="37.176260" lon="-113.334010">
        <ele>991.216</ele>
        <time>2018-12-28T17:31:42Z</time>
      </trkpt>
      <trkpt lat="37.176270" lon="-113.333860">
        <ele>991.540</ele>
        <time>2018-12-28T17:32:02Z</time>
      </trkpt>
      <trkpt lat="37.176300" lon="-113.333630">
        <ele>991.999</ele>
        <time>2018-12-28T17:32:22Z</time>
      </trkpt>
      <trkpt lat="37.176320" lon="-113.333300">
        <ele>992.694</ele>
        <time>2018-12-28T17:32:42Z</time>
      </trkpt>
      <trkpt lat="37.176330" lon="-113.332980">
        <ele>993.289</ele>
        <time>2018-12-28T17:33:02Z</time>
      </trkpt>
      <trkpt lat="37.176330" lon="-113.332760">
        <ele>993.606</ele>
        <time>2018-12-28T17:33:22Z</time>
      </trkpt>
      <trkpt lat="37.176340" lon="-113.332310">
        <ele>994.426</ele>
        <time>2018-12-28T17:33:42Z</time>
      </trkpt>
      <trkpt lat="37.176340" lon="-113.331800">
        <ele>995.508</ele>
        <time>2018-12-28T17:34:02Z</time>
      </trkpt>
      <trkpt lat="37.176340" lon="-113.331640">
        <ele>995.831</ele>
        <time>2018-12-28T17:34:22Z</time>
      </trkpt>
      <trkpt lat="37.176340" lon="-113.331390">
        <ele>996.149</ele>
        <time>2018-12-28T17:34:42Z</time>
      </trkpt>
      <trkpt lat="37.176350" lon="-113.331280">
        <ele>996.134</ele>
        <time>2018-12-28T17:35:02Z</time>
      </trkpt>
      <trkpt lat="37.176350" lon="-113.330980">
        <ele>996.555</ele>
        <time>2018-12-28T17:35:22Z</time>
      </trkpt>
      <trkpt lat="37.176350" lon="-113.329810">
        <ele>998.479</ele>
        <time>2018-12-28T17:35:42Z</time>
      </trkpt>
      <trkpt lat="37.176360" lon="-113.329520">
        <ele>998.723</ele>
        <time>2018-12-28T17:36:02Z</time>
      </trkpt>
      <trkpt lat="37.176360" lon="-113.328530">
        <ele>999.632</ele>
        <time>2018-12-28T17:36:22Z</time>
      </trkpt>
      <trkpt lat="37.176370" lon="-113.328250">
        <ele>999.447</ele>
        <time>2018-12-28T17:36:42Z</time>
      </trkpt>
      <trkpt lat="37.176370" lon="-113.327410">
        <ele>998.686</ele>
        <time>2018-12-28T17:37:02Z</time>
      </trkpt>
      <trkpt lat="37.176370" lon="-113.325560">
        <ele>998.560</ele>
        <time>2018-12-28T17:37:22Z</time>
      </trkpt>
      <trkpt lat="37.176390" lon="-113.323990">
        <ele>994.726</ele>
        <time>2018-12-28T17:37:42Z</time>
      </trkpt>
      <trkpt lat="37.176400" lon="-113.323000">
        <ele>989.208</ele>
        <time>2018-12-28T17:38:02Z</time>
      </trkpt>
      <trkpt lat="37.176400" lon="-113.321480">
        <ele>976.891</ele>
        <time>2018-12-28T17:38:22Z</time>
      </trkpt>
      <trkpt lat="37.176410" lon="-113.320480">
        <ele>976.549</ele>
        <time>2018-12-28T17:38:42Z</time>
      </trkpt>
      <trkpt lat="37.176410" lon="-113.319760">
        <ele>978.174</ele>
        <time>2018-12-28T17:39:02Z</time>
      </trkpt>
      <trkpt lat="37.176410" lon="-113.319530">
        <ele>978.775</ele>
        <time>2018-12-28T17:39:22Z</time>
      </trkpt>
      <trkpt lat="37.176410" lon="-113.319310">
        <ele>979.029</ele>
        <time>2018-12-28T17:39:42Z</time>
      </trkpt>
      <trkpt lat="37.176420" lon="-113.318530">
        <ele>979.053</ele>
        <time>2018-12-28T17:40:02Z</time>
      </trkpt>
      <trkpt lat="37.176420" lon="-113.318020">
        <ele>978.752</ele>
        <time>2018-12-28T17:40:22Z</time>
      </trkpt>
      <trkpt lat="37.176430" lon="-113.316710">
        <ele>978.057</ele>
        <time>2018-12-28T17:40:42Z</time>
      </trkpt>
      <trkpt lat="37.176440" lon="-113.313920">
        <ele>968.687</ele>
        <time>2018-12-28T17:41:02Z</time>
      </trkpt>
      <trkpt lat="37.176450" lon="-113.312450">
        <ele>971.842</ele>
        <time>2018-12-28T17:41:22Z</time>
      </trkpt>
      <trkpt lat="37.176460" lon="-113.311780">
        <ele>973.926</ele>
        <time>2018-12-28T17:41:42Z</time>
      </trkpt>
      <trkpt lat="37.176410" lon="-113.311690">
        <ele>974.208</ele>
        <time>2018-12-28T17:42:02Z</time>
      </trkpt>
      <trkpt lat="37.176410" lon="-113.311310">
        <ele>975.271</ele>
        <time>2018-12-28T17:42:22Z</time>
      </trkpt>
      <trkpt lat="37.176410" lon="-113.311060">
        <ele>975.929</ele>
        <time>2018-12-28T17:42:42Z</time>
      </trkpt>
      <trkpt lat="37.176420" lon="-113.309840">
        <ele>977.664</ele>
        <time>2018-12-28T17:43:02Z</time>
      </trkpt>
      <trkpt lat="37.176420" lon="-113.309060">
        <ele>978.545</ele>
        <time>2018-12-28T17:43:22Z</time>
      </trkpt>
      <trkpt lat="37.176420" lon="-113.308960">
        <ele>978.679</ele>
        <time>2018-12-28T17:43:42Z</time>
      </trkpt>
      <trkpt lat="37.176420" lon="-113.308860">
        <ele>978.873</ele>
        <time>2018-12-28T17:44:02Z</time>
      </trkpt>
      <trkpt lat="37.176420" lon="-113.308700">
        <ele>979.082</ele>
        <time>2018-12-28T17:44:22Z</time>
      </trkpt>
      <trkpt lat="37.176430" lon="-113.308290">
        <ele>979.567</ele>
        <time>2018-12-28T17:44:42Z</time>
      </trkpt>
      <trkpt lat="37.176430" lon="-113.308250">
        <ele>979.547</ele>
        <time>2018-12-28T17:45:02Z</time>
      </trkpt>
      <trkpt lat="37.176430" lon="-113.308220">
        <ele>979.629</ele>
        <time>2018-12-28T17:45:22Z</time>
      </trkpt>
      <trkpt lat="37.176480" lon="-113.308030">
        <ele>979.821</ele>
        <time>2018-12-28T17:45:42Z</time>
      </trkpt>
      <trkpt lat="37.176480" lon="-113.307660">
        <ele>980.308</ele>
        <time>2018-12-28T17:46:02Z</time>
      </trkpt>
      <trkpt lat="37.176480" lon="-113.306870">
        <ele>981.787</ele>
        <time>2018-12-28T17:46:22Z</time>
      </trkpt>
      <trkpt lat="37.176500" lon="-113.304650">
        <ele>985.055</ele>
        <time>2018-12-28T17:46:42Z</time>
      </trkpt>
      <trkpt lat="37.176500" lon="-113.304070">
        <ele>985.850</ele>
        <time>2018-12-28T17:47:02Z</time>
      </trkpt>
      <trkpt lat="37.176500" lon="-113.303270">
        <ele>986.531</ele>
        <time>2018-12-28T17:47:22Z</time>
      </trkpt>
      <trkpt lat="37.176500" lon="-113.303030">
        <ele>986.665</ele>
        <time>2018-12-28T17:47:42Z</time>
      </trkpt>
      <trkpt lat="37.176500" lon="-113.302570">
        <ele>986.739</ele>
        <time>2018-12-28T17:48:02Z</time>
      </trkpt>
      <trkpt lat="37.176500" lon="-113.302200">
        <ele>986.528</ele>
        <time>2018-12-28T17:48:22Z</time>
      </trkpt>
      <trkpt lat="37.176500" lon="-113.302170">
        <ele>986.563</ele>
        <time>2018-12-28T17:48:42Z</time>
      </trkpt>
      <trkpt lat="37.176510" lon="-113.301820">
        <ele>986.548</ele>
        <time>2018-12-28T17:49:02Z</time>
      </trkpt>
      <trkpt lat="37.176510" lon="-113.301810">
        <ele>986.561</ele>
        <time>2018-12-28T17:49:22Z</time>
      </trkpt>
      <trkpt lat="37.176510" lon="-113.301170">
        <ele>986.717</ele>
        <time>2018-12-28T17:49:42Z</time>
      </trkpt>
      <trkpt lat="37.176510" lon="-113.300570">
        <ele>986.808</ele>
        <time>2018-12-28T17:50:02Z</time>
      </trkpt>
      <trkpt lat="37.176510" lon="-113.299770">
        <ele>986.937</ele>
        <time>2018-12-28T17:50:22Z</time>
      </trkpt>
      <trkpt lat="37.176520" lon="-113.299350">
        <ele>986.865</ele>
        <time>2018-12-28T17:50:42Z</time>
      </trkpt>
      <trkpt lat="37.176520" lon="-113.299060">
        <ele>986.950</ele>
        <time>2018-12-28T17:51:02Z</time>
      </trkpt>
      <trkpt lat="37.176520" lon="-113.298540">
        <ele>986.921</ele>
        <time>2018-12-28T17:51:22Z</time>
      </trkpt>
      <trkpt lat="37.176530" lon="-113.298040">
        <ele>986.965</ele>
        <time>2018-12-28T17:51:42Z</time>
      </trkpt>
      <trkpt lat="37.176540" lon="-113.296430">
        <ele>986.549</ele>
        <time>2018-12-28T17:52:02Z</time>
      </trkpt>
      <trkpt lat="37.176540" lon="-113.295710">
        <ele>987.068</ele>
        <time>2018-12-28T17:52:22Z</time>
      </trkpt>
      <trkpt lat="37.176550" lon="-113.294820">
        <ele>987.163</ele>
        <time>2018-12-28T17:52:42Z</time>
      </trkpt>
      <trkpt lat="37.176500" lon="-113.294750">
        <ele>987.028</ele>
        <time>2018-12-28T17:53:02Z</time>
      </trkpt>
      <trkpt lat="37.176490" lon="-113.294380">
        <ele>986.989</ele>
        <time>2018-12-28T17:53:22Z</time>
      </trkpt>
      <trkpt lat="37.176480" lon="-113.293780">
        <ele>986.917</ele>
        <time>2018-12-28T17:53:42Z</time>
      </trkpt>
      <trkpt lat="37.176490" lon="-113.292950">
        <ele>986.908</ele>
        <time>2018-12-28T17:54:02Z</time>
      </trkpt>
      <trkpt lat="37.176490" lon="-113.291890">
        <ele>987.125</ele>
        <time>2018-12-28T17:54:22Z</time>
      </trkpt>
      <trkpt lat="37.176510" lon="-113.291120">
        <ele>987.553</ele>
        <time>2018-12-28T17:54:42Z</time>
      </trkpt>
      <trkpt lat="37.176510" lon="-113.290680">
        <ele>987.448</ele>
        <time>2018-12-28T17:55:02Z</time>
      </trkpt>
      <trkpt lat="37.176510" lon="-113.290010">
        <ele>987.549</ele>
        <time>2018-12-28T17:55:22Z</time>
      </trkpt>
      <trkpt lat="37.176520" lon="-113.288750">
        <ele>987.793</ele>
        <time>2018-12-28T17:55:42Z</time>
      </trkpt>
      <trkpt lat="37.176520" lon="-113.288130">
        <ele>987.767</ele>
        <time>2018-12-28T17:56:02Z</time>
      </trkpt>
      <trkpt lat="37.176530" lon="-113.287520">
        <ele>987.736</ele>
        <time>2018-12-28T17:56:22Z</time>
      </trkpt>
      <trkpt lat="37.176530" lon="-113.287240">
        <ele>987.931</ele>
        <time>2018-12-28T17:56:42Z</time>
      </trkpt>
      <trkpt lat="37.176540" lon="-113.287000">
        <ele>987.922</ele>
        <time>2018-12-28T17:57:02Z</time>
      </trkpt>
      <trkpt lat="37.176540" lon="-113.286920">
        <ele>987.962</ele>
        <time>2018-12-28T17:57:22Z</time>
      </trkpt>
      <trkpt lat="37.176550" lon="-113.286550">
        <ele>987.808</ele>
        <time>2018-12-28T17:57:42Z</time>
      </trkpt>
      <trkpt lat="37.176550" lon="-113.286260">
        <ele>988.108</ele>
        <time>2018-12-28T17:58:02Z</time>
      </trkpt>
      <trkpt lat="37.176545" lon="-113.286256">
        <ele>988.115</ele>
        <time>2018-12-28T17:58:22Z</time>
      </trkpt>
      <trkpt lat="37.176180" lon="-113.286260">
        <ele>988.053</ele>
        <time>2018-12-28T17:58:42Z</time>
      </trkpt>
      <trkpt lat="37.175140" lon="-113.286190">
        <ele>988.718</ele>
        <time>2018-12-28T17:59:02Z</time>
      </trkpt>
      <trkpt lat="37.175138" lon="-113.286194">
        <ele>988.759</ele>
        <time>2018-12-28T17:59:22Z</time>
      </trkpt>
      <trkpt lat="37.175130" lon="-113.286100">
        <ele>988.873</ele>
        <time>2018-12-28T17:59:42Z</time>
      </trkpt>
      <trkpt lat="37.175130" lon="-113.285940">
        <ele>989.087</ele>
        <time>2018-12-28T18:00:02Z</time>
      </trkpt>
      <trkpt lat="37.175140" lon="-113.285640">
        <ele>989.586</ele>
        <time>2018-12-28T18:00:22Z</time>
      </trkpt>
      <trkpt lat="37.175140" lon="-113.285480">
        <ele>990.091</ele>
        <time>2018-12-28T18:00:42Z</time>
      </trkpt>
      <trkpt lat="37.175160" lon="-113.285310">
        <ele>990.669</ele>
        <time>2018-12-28T18:01:02Z</time>
      </trkpt>
      <trkpt lat="37.175180" lon="-113.285180">
        <ele>991.004</ele>
        <time>2018-12-28T18:01:22Z</time>
      </trkpt>
      <trkpt lat="37.175200" lon="-113.285050">
        <ele>991.424</ele>
        <time>2018-12-28T18:01:42Z</time>
      </trkpt>
      <trkpt lat="37.175230" lon="-113.284910">
        <ele>991.808</ele>
        <time>2018-12-28T18:02:02Z</time>
      </trkpt>
      <trkpt lat="37.175250" lon="-113.284840">
        <ele>992.349</ele>
        <time>2018-12-28T18:02:22Z</time>
      </trkpt>
      <trkpt lat="37.175270" lon="-113.284790">
        <ele>992.887</ele>
        <time>2018-12-28T18:02:42Z</time>
      </trkpt>
      <trkpt lat="37.175320" lon="-113.284650">
        <ele>994.442</ele>
        <time>2018-12-28T18:03:02Z</time>
      </trkpt>
      <trkpt lat="37.175370" lon="-113.284510">
        <ele>996.053</ele>
        <time>2018-12-28T18:03:22Z</time>
      </trkpt>
      <trkpt lat="37.175430" lon="-113.284390">
        <ele>996.287</ele>
        <time>2018-12-28T18:03:42Z</time>
      </trkpt>
      <trkpt lat="37.175490" lon="-113.284280">
        <ele>997.441</ele>
        <time>2018-12-28T18:04:02Z</time>
      </trkpt>
      <trkpt lat="37.175570" lon="-113.284140">
        <ele>1000.460</ele>
        <time>2018-12-28T18:04:22Z</time>
      </trkpt>
      <trkpt lat="37.175670" lon="-113.284010">
        <ele>1001.265</ele>
        <time>2018-12-28T18:04:42Z</time>
      </trkpt>
      <trkpt lat="37.175730" lon="-113.283930">
        <ele>1003.381</ele>
        <time>2018-12-28T18:05:02Z</time>
      </trkpt>
      <trkpt lat="37.175790" lon="-113.283870">
        <ele>1004.361</ele>
        <time>2018-12-28T18:05:22Z</time>
      </trkpt>
      <trkpt lat="37.175960" lon="-113.283700">
        <ele>1004.417</ele>
        <time>2018-12-28T18:05:42Z</time>
      </trkpt>
      <trkpt lat="37.176090" lon="-113.283590">
        <ele>1006.008</ele>
        <time>2018-12-28T18:06:02Z</time>
      </trkpt>
      <trkpt lat="37.176170" lon="-113.283520">
        <ele>1006.351</ele>
        <time>2018-12-28T18:06:22Z</time>
      </trkpt>
      <trkpt lat="37.176280" lon="-113.283440">
        <ele>1006.249</ele>
        <time>2018-12-28T18:06:42Z</time>
      </trkpt>
      <trkpt lat="37.176360" lon="-113.283380">
        <ele>1006.734</ele>
        <time>2018-12-28T18:07:02Z</time>
      </trkpt>
      <trkpt lat="37.176550" lon="-113.283240">
        <ele>1007.625</ele>
        <time>2018-12-28T18:07:22Z</time>
      </trkpt>
      <trkpt lat="37.176800" lon="-113.283070">
        <ele>1009.629</ele>
        <time>2018-12-28T18:07:42Z</time>
      </trkpt>
      <trkpt lat="37.176930" lon="-113.282980">
        <ele>1010.833</ele>
        <time>2018-12-28T18:08:02Z</time>
      </trkpt>
      <trkpt lat="37.177190" lon="-113.282810">
        <ele>1016.012</ele>
        <time>2018-12-28T18:08:22Z</time>
      </trkpt>
      <trkpt lat="37.177420" lon="-113.282660">
        <ele>1015.797</ele>
        <time>2018-12-28T18:08:42Z</time>
      </trkpt>
      <trkpt lat="37.177550" lon="-113.282580">
        <ele>1018.548</ele>
        <time>2018-12-28T18:09:02Z</time>
      </trkpt>
      <trkpt lat="37.177690" lon="-113.282490">
        <ele>1019.861</ele>
        <time>2018-12-28T18:09:22Z</time>
      </trkpt>
      <trkpt lat="37.177800" lon="-113.282440">
        <ele>1019.617</ele>
        <time>2018-12-28T18:09:42Z</time>
      </trkpt>
      <trkpt lat="37.177870" lon="-113.282410">
        <ele>1019.708</ele>
        <time>2018-12-28T18:10:02Z</time>
      </trkpt>
      <trkpt lat="37.177940" lon="-113.282380">
        <ele>1020.317</ele>
        <time>2018-12-28T18:10:22Z</time>
      </trkpt>
      <trkpt lat="37.178010" lon="-113.282350">
        <ele>1022.325</ele>
        <time>2018-12-28T18:10:42Z</time>
      </trkpt>
      <trkpt lat="37.178120" lon="-113.282310">
        <ele>1025.220</ele>
        <time>2018-12-28T18:11:02Z</time>
      </trkpt>
      <trkpt lat="37.178230" lon="-113.282280">
        <ele>1026.711</ele>
        <time>2018-12-28T18:11:22Z</time>
      </trkpt>
      <trkpt lat="37.178350" lon="-113.282250">
        <ele>1026.465</ele>
        <time>2018-12-28T18:11:42Z</time>
      </trkpt>
      <trkpt lat="37.178400" lon="-113.282240">
        <ele>1026.259</ele>
        <time>2018-12-28T18:12:02Z</time>
      </trkpt>
      <trkpt lat="37.178420" lon="-113.282240">
        <ele>1025.868</ele>
        <time>2018-12-28T18:12:22Z</time>
      </trkpt>
      <trkpt lat="37.178510" lon="-113.282210">
        <ele>1026.133</ele>
        <time>2018-12-28T18:12:42Z</time>
      </trkpt>
      <trkpt lat="37.178610" lon="-113.282170">
        <ele>1026.649</ele>
        <time>2018-12-28T18:13:02Z</time>
      </trkpt>
      <trkpt lat="37.178700" lon="-113.282130">
        <ele>1026.802</ele>
        <time>2018-12-28T18:13:22Z</time>
      </trkpt>
      <trkpt lat="37.178760" lon="-113.282100">
        <ele>1027.022</ele>
        <time>2018-12-28T18:13:42Z</time>
      </trkpt>
      <trkpt lat="37.178870" lon="-113.282040">
        <ele>1030.008</ele>
        <time>2018-12-28T18:14:02Z</time>
      </trkpt>
      <trkpt lat="37.178980" lon="-113.281980">
        <ele>1031.187</ele>
        <time>2018-12-28T18:14:22Z</time>
      </trkpt>
      <trkpt lat="37.179040" lon="-113.281940">
        <ele>1030.975</ele>
        <time>2018-12-28T18:14:42Z</time>
      </trkpt>
      <trkpt lat="37.179110" lon="-113.281900">
        <ele>1031.120</ele>
        <time>2018-12-28T18:15:02Z</time>
      </trkpt>
      <trkpt lat="37.179210" lon="-113.281840">
        <ele>1032.041</ele>
        <time>2018-12-28T18:15:22Z</time>
      </trkpt>
      <trkpt lat="37.179350" lon="-113.281730">
        <ele>1032.315</ele>
        <time>2018-12-28T18:15:42Z</time>
      </trkpt>
      <trkpt lat="37.179450" lon="-113.281650">
        <ele>1032.279</ele>
        <time>2018-12-28T18:16:02Z</time>
      </trkpt>
      <trkpt lat="37.179530" lon="-113.281580">
        <ele>1033.328</ele>
        <time>2018-12-28T18:16:22Z</time>
      </trkpt>
      <trkpt lat="37.179610" lon="-113.281520">
        <ele>1034.273</ele>
        <time>2018-12-28T18:16:42Z</time>
      </trkpt>
      <trkpt lat="37.179960" lon="-113.281250">
        <ele>1038.441</ele>
        <time>2018-12-28T18:17:02Z</time>
      </trkpt>
      <trkpt lat="37.180170" lon="-113.281090">
        <ele>1041.981</ele>
        <time>2018-12-28T18:17:22Z</time>
      </trkpt>
      <trkpt lat="37.180250" lon="-113.281030">
        <ele>1042.909</ele>
        <time>2018-12-28T18:17:42Z</time>
      </trkpt>
      <trkpt lat="37.180570" lon="-113.280860">
        <ele>1044.008</ele>
        <time>2018-12-28T18:18:02Z</time>
      </trkpt>
      <trkpt lat="37.180770" lon="-113.280750">
        <ele>1044.917</ele>
        <time>2018-12-28T18:18:22Z</time>
      </trkpt>
      <trkpt lat="37.180910" lon="-113.280690">
        <ele>1047.815</ele>
        <time>2018-12-28T18:18:42Z</time>
      </trkpt>
      <trkpt lat="37.181010" lon="-113.280650">
        <ele>1049.130</ele>
        <time>2018-12-28T18:19:02Z</time>
      </trkpt>
      <trkpt lat="37.181250" lon="-113.280560">
        <ele>1047.711</ele>
        <time>2018-12-28T18:19:22Z</time>
      </trkpt>
      <trkpt lat="37.181370" lon="-113.280500">
        <ele>1048.885</ele>
        <time>2018-12-28T18:19:42Z</time>
      </trkpt>
      <trkpt lat="37.181450" lon="-113.280470">
        <ele>1050.029</ele>
        <time>2018-12-28T18:20:02Z</time>
      </trkpt>
      <trkpt lat="37.181520" lon="-113.280430">
        <ele>1052.018</ele>
        <time>2018-12-28T18:20:22Z</time>
      </trkpt>
      <trkpt lat="37.181610" lon="-113.280390">
        <ele>1053.033</ele>
        <time>2018-12-28T18:20:42Z</time>
      </trkpt>
      <trkpt lat="37.181670" lon="-113.280350">
        <ele>1053.961</ele>
        <time>2018-12-28T18:21:02Z</time>
      </trkpt>
      <trkpt lat="37.181730" lon="-113.280310">
        <ele>1054.421</ele>
        <time>2018-12-28T18:21:22Z</time>
      </trkpt>
      <trkpt lat="37.181790" lon="-113.280270">
        <ele>1054.413</ele>
        <time>2018-12-28T18:21:42Z</time>
      </trkpt>
      <trkpt lat="37.181830" lon="-113.280240">
        <ele>1054.508</ele>
        <time>2018-12-28T18:22:02Z</time>
      </trkpt>
      <trkpt lat="37.181900" lon="-113.280180">
        <ele>1055.589</ele>
        <time>2018-12-28T18:22:22Z</time>
      </trkpt>
      <trkpt lat="37.181960" lon="-113.280120">
        <ele>1057.387</ele>
        <time>2018-12-28T18:22:42Z</time>
      </trkpt>
      <trkpt lat="37.182030" lon="-113.280050">
        <ele>1057.712</ele>
        <time>2018-12-28T18:23:02Z</time>
      </trkpt>
      <trkpt lat="37.182070" lon="-113.280000">
        <ele>1057.123</ele>
        <time>2018-12-28T18:23:22Z</time>
      </trkpt>
      <trkpt lat="37.182110" lon="-113.279950">
        <ele>1057.277</ele>
        <time>2018-12-28T18:23:42Z</time>
      </trkpt>
      <trkpt lat="37.182170" lon="-113.279870">
        <ele>1059.211</ele>
        <time>2018-12-28T18:24:02Z</time>
      </trkpt>
      <trkpt lat="37.182210" lon="-113.279800">
        <ele>1061.550</ele>
        <time>2018-12-28T18:24:22Z</time>
      </trkpt>
      <trkpt lat="37.182270" lon="-113.279700">
        <ele>1062.925</ele>
        <time>2018-12-28T18:24:42Z</time>
      </trkpt>
      <trkpt lat="37.182310" lon="-113.279600">
        <ele>1062.352</ele>
        <time>2018-12-28T18:25:02Z</time>
      </trkpt>
      <trkpt lat="37.182350" lon="-113.279520">
        <ele>1060.853</ele>
        <time>2018-12-28T18:25:22Z</time>
      </trkpt>
      <trkpt lat="37.182400" lon="-113.279390">
        <ele>1057.108</ele>
        <time>2018-12-28T18:25:42Z</time>
      </trkpt>
      <trkpt lat="37.182430" lon="-113.279300">
        <ele>1053.708</ele>
        <time>2018-12-28T18:26:02Z</time>
      </trkpt>
      <trkpt lat="37.182460" lon="-113.279200">
        <ele>1048.258</ele>
        <time>2018-12-28T18:26:22Z</time>
      </trkpt>
      <trkpt lat="37.182490" lon="-113.279100">
        <ele>1041.356</ele>
        <time>2018-12-28T18:26:42Z</time>
      </trkpt>
      <trkpt lat="37.182520" lon="-113.278980">
        <ele>1038.921</ele>
        <time>2018-12-28T18:27:02Z</time>
      </trkpt>
      <trkpt lat="37.182560" lon="-113.278860">
        <ele>1048.732</ele>
        <time>2018-12-28T18:27:22Z</time>
      </trkpt>
      <trkpt lat="37.182600" lon="-113.278760">
        <ele>1061.426</ele>
        <time>2018-12-28T18:27:42Z</time>
      </trkpt>
      <trkpt lat="37.182620" lon="-113.278710">
        <ele>1063.150</ele>
        <time>2018-12-28T18:28:02Z</time>
      </trkpt>
      <trkpt lat="37.182640" lon="-113.278660">
        <ele>1063.289</ele>
        <time>2018-12-28T18:28:22Z</time>
      </trkpt>
      <trkpt lat="37.182700" lon="-113.278510">
        <ele>1063.044</ele>
        <time>2018-12-28T18:28:42Z</time>
      </trkpt>
      <trkpt lat="37.182740" lon="-113.278450">
        <ele>1063.535</ele>
        <time>2018-12-28T18:29:02Z</time>
      </trkpt>
      <trkpt lat="37.182780" lon="-113.278370">
        <ele>1063.486</ele>
        <time>2018-12-28T18:29:22Z</time>
      </trkpt>
      <trkpt lat="37.182860" lon="-113.278230">
        <ele>1064.014</ele>
        <time>2018-12-28T18:29:42Z</time>
      </trkpt>
      <trkpt lat="37.183030" lon="-113.277960">
        <ele>1064.808</ele>
        <time>2018-12-28T18:30:02Z</time>
      </trkpt>
      <trkpt lat="37.183240" lon="-113.277640">
        <ele>1066.056</ele>
        <time>2018-12-28T18:30:22Z</time>
      </trkpt>
      <trkpt lat="37.183460" lon="-113.277310">
        <ele>1067.334</ele>
        <time>2018-12-28T18:30:42Z</time>
      </trkpt>
      <trkpt lat="37.183550" lon="-113.277160">
        <ele>1066.499</ele>
        <time>2018-12-28T18:31:02Z</time>
      </trkpt>
      <trkpt lat="37.183650" lon="-113.276980">
        <ele>1066.210</ele>
        <time>2018-12-28T18:31:22Z</time>
      </trkpt>
      <trkpt lat="37.183690" lon="-113.276890">
        <ele>1067.194</ele>
        <time>2018-12-28T18:31:42Z</time>
      </trkpt>
      <trkpt lat="37.183720" lon="-113.276800">
        <ele>1068.498</ele>
        <time>2018-12-28T18:32:02Z</time>
      </trkpt>
      <trkpt lat="37.183760" lon="-113.276690">
        <ele>1068.757</ele>
        <time>2018-12-28T18:32:22Z</time>
      </trkpt>
      <trkpt lat="37.183790" lon="-113.276570">
        <ele>1068.552</ele>
        <time>2018-12-28T18:32:42Z</time>
      </trkpt>
      <trkpt lat="37.183810" lon="-113.276470">
        <ele>1068.495</ele>
        <time>2018-12-28T18:33:02Z</time>
      </trkpt>
      <trkpt lat="37.183830" lon="-113.276400">
        <ele>1068.349</ele>
        <time>2018-12-28T18:33:22Z</time>
      </trkpt>
      <trkpt lat="37.183840" lon="-113.276330">
        <ele>1068.323</ele>
        <time>2018-12-28T18:33:42Z</time>
      </trkpt>
      <trkpt lat="37.183850" lon="-113.276240">
        <ele>1068.408</ele>
        <time>2018-12-28T18:34:02Z</time>
      </trkpt>
      <trkpt lat="37.183850" lon="-113.276130">
        <ele>1068.712</ele>
        <time>2018-12-28T18:34:22Z</time>
      </trkpt>
      <trkpt lat="37.183860" lon="-113.276030">
        <ele>1068.990</ele>
        <time>2018-12-28T18:34:42Z</time>
      </trkpt>
      <trkpt lat="37.183860" lon="-113.275920">
        <ele>1069.325</ele>
        <time>2018-12-28T18:35:02Z</time>
      </trkpt>
      <trkpt lat="37.183850" lon="-113.275800">
        <ele>1070.176</ele>
        <time>2018-12-28T18:35:22Z</time>
      </trkpt>
      <trkpt lat="37.183840" lon="-113.275690">
        <ele>1070.840</ele>
        <time>2018-12-28T18:35:42Z</time>
      </trkpt>
      <trkpt lat="37.183830" lon="-113.275580">
        <ele>1071.444</ele>
        <time>2018-12-28T18:36:02Z</time>
      </trkpt>
      <trkpt lat="37.183800" lon="-113.275470">
        <ele>1072.293</ele>
        <time>2018-12-28T18:36:22Z</time>
      </trkpt>
      <trkpt lat="37.183780" lon="-113.275360">
        <ele>1073.048</ele>
        <time>2018-12-28T18:36:42Z</time>
      </trkpt>
      <trkpt lat="37.183760" lon="-113.275290">
        <ele>1073.681</ele>
        <time>2018-12-28T18:37:02Z</time>
      </trkpt>
      <trkpt lat="37.183740" lon="-113.275240">
        <ele>1073.861</ele>
        <time>2018-12-28T18:37:22Z</time>
      </trkpt>
      <trkpt lat="37.183720" lon="-113.275160">
        <ele>1074.117</ele>
        <time>2018-12-28T18:37:42Z</time>
      </trkpt>
      <trkpt lat="37.183660" lon="-113.275030">
        <ele>1073.808</ele>
        <time>2018-12-28T18:38:02Z</time>
      </trkpt>
      <trkpt lat="37.183620" lon="-113.274940">
        <ele>1074.161</ele>
        <time>2018-12-28T18:38:22Z</time>
      </trkpt>
      <trkpt lat="37.183560" lon="-113.274830">
        <ele>1075.269</ele>
        <time>2018-12-28T18:38:42Z</time>
      </trkpt>
      <trkpt lat="37.183480" lon="-113.274720">
        <ele>1076.284</ele>
        <time>2018-12-28T18:39:02Z</time>
      </trkpt>
      <trkpt lat="37.183410" lon="-113.274620">
        <ele>1076.465</ele>
        <time>2018-12-28T18:39:22Z</time>
      </trkpt>
      <trkpt lat="37.183370" lon="-113.274570">
        <ele>1076.579</ele>
        <time>2018-12-28T18:39:42Z</time>
      </trkpt>
      <trkpt lat="37.183340" lon="-113.274540">
        <ele>1076.413</ele>
        <time>2018-12-28T18:40:02Z</time>
      </trkpt>
      <trkpt lat="37.183300" lon="-113.274490">
        <ele>1076.732</ele>
        <time>2018-12-28T18:40:22Z</time>
      </trkpt>
      <trkpt lat="37.183260" lon="-113.274450">
        <ele>1077.227</ele>
        <time>2018-12-28T18:40:42Z</time>
      </trkpt>
      <trkpt lat="37.183200" lon="-113.274390">
        <ele>1078.666</ele>
        <time>2018-12-28T18:41:02Z</time>
      </trkpt>
      <trkpt lat="37.183160" lon="-113.274360">
        <ele>1079.229</ele>
        <time>2018-12-28T18:41:22Z</time>
      </trkpt>
      <trkpt lat="37.183110" lon="-113.274320">
        <ele>1079.921</ele>
        <time>2018-12-28T18:41:42Z</time>
      </trkpt>
      <trkpt lat="37.183060" lon="-113.274280">
        <ele>1080.308</ele>
        <time>2018-12-28T18:42:02Z</time>
      </trkpt>
      <trkpt lat="37.182990" lon="-113.274230">
        <ele>1080.659</ele>
        <time>2018-12-28T18:42:22Z</time>
      </trkpt>
      <trkpt lat="37.182920" lon="-113.274190">
        <ele>1081.277</ele>
        <time>2018-12-28T18:42:42Z</time>
      </trkpt>
      <trkpt lat="37.182790" lon="-113.274120">
        <ele>1083.292</ele>
        <time>2018-12-28T18:43:02Z</time>
      </trkpt>
      <trkpt lat="37.182690" lon="-113.274080">
        <ele>1084.773</ele>
        <time>2018-12-28T18:43:22Z</time>
      </trkpt>
      <trkpt lat="37.182630" lon="-113.274060">
        <ele>1085.567</ele>
        <time>2018-12-28T18:43:42Z</time>
      </trkpt>
      <trkpt lat="37.182580" lon="-113.274050">
        <ele>1085.881</ele>
        <time>2018-12-28T18:44:02Z</time>
      </trkpt>
      <trkpt lat="37.182540" lon="-113.274040">
        <ele>1086.180</ele>
        <time>2018-12-28T18:44:22Z</time>
      </trkpt>
      <trkpt lat="37.182480" lon="-113.274030">
        <ele>1086.635</ele>
        <time>2018-12-28T18:44:42Z</time>
      </trkpt>
      <trkpt lat="37.182400" lon="-113.274030">
        <ele>1087.058</ele>
        <time>2018-12-28T18:45:02Z</time>
      </trkpt>
      <trkpt lat="37.182280" lon="-113.274020">
        <ele>1087.652</ele>
        <time>2018-12-28T18:45:22Z</time>
      </trkpt>
      <trkpt lat="37.182200" lon="-113.274020">
        <ele>1087.917</ele>
        <time>2018-12-28T18:45:42Z</time>
      </trkpt>
      <trkpt lat="37.182080" lon="-113.274030">
        <ele>1088.208</ele>
        <time>2018-12-28T18:46:02Z</time>
      </trkpt>
      <trkpt lat="37.182020" lon="-113.274050">
        <ele>1088.688</ele>
        <time>2018-12-28T18:46:22Z</time>
      </trkpt>
      <trkpt lat="37.181940" lon="-113.274060">
        <ele>1089.426</ele>
        <time>2018-12-28T18:46:42Z</time>
      </trkpt>
      <trkpt lat="37.181880" lon="-113.274080">
        <ele>1089.761</ele>
        <time>2018-12-28T18:47:02Z</time>
      </trkpt>
      <trkpt lat="37.181810" lon="-113.274110">
        <ele>1089.932</ele>
        <time>2018-12-28T18:47:22Z</time>
      </trkpt>
      <trkpt lat="37.181650" lon="-113.274160">
        <ele>1092.656</ele>
        <time>2018-12-28T18:47:42Z</time>
      </trkpt>
      <trkpt lat="37.181500" lon="-113.274220">
        <ele>1095.860</ele>
        <time>2018-12-28T18:48:02Z</time>
      </trkpt>
      <trkpt lat="37.181400" lon="-113.274270">
        <ele>1096.329</ele>
        <time>2018-12-28T18:48:22Z</time>
      </trkpt>
      <trkpt lat="37.181290" lon="-113.274320">
        <ele>1096.394</ele>
        <time>2018-12-28T18:48:42Z</time>
      </trkpt>
      <trkpt lat="37.181160" lon="-113.274380">
        <ele>1096.175</ele>
        <time>2018-12-28T18:49:02Z</time>
      </trkpt>
      <trkpt lat="37.181040" lon="-113.274440">
        <ele>1095.128</ele>
        <time>2018-12-28T18:49:22Z</time>
      </trkpt>
      <trkpt lat="37.180920" lon="-113.274480">
        <ele>1094.620</ele>
        <time>2018-12-28T18:49:42Z</time>
      </trkpt>
      <trkpt lat="37.180800" lon="-113.274520">
        <ele>1095.308</ele>
        <time>2018-12-28T18:50:02Z</time>
      </trkpt>
      <trkpt lat="37.180640" lon="-113.274560">
        <ele>1096.790</ele>
        <time>2018-12-28T18:50:22Z</time>
      </trkpt>
      <trkpt lat="37.180570" lon="-113.274570">
        <ele>1097.458</ele>
        <time>2018-12-28T18:50:42Z</time>
      </trkpt>
      <trkpt lat="37.180500" lon="-113.274580">
        <ele>1098.063</ele>
        <time>2018-12-28T18:51:02Z</time>
      </trkpt>
      <trkpt lat="37.180330" lon="-113.274600">
        <ele>1099.274</ele>
        <time>2018-12-28T18:51:22Z</time>
      </trkpt>
      <trkpt lat="37.180220" lon="-113.274600">
        <ele>1100.418</ele>
        <time>2018-12-28T18:51:42Z</time>
      </trkpt>
      <trkpt lat="37.180120" lon="-113.274590">
        <ele>1101.992</ele>
        <time>2018-12-28T18:52:02Z</time>
      </trkpt>
      <trkpt lat="37.179970" lon="-113.274580">
        <ele>1104.771</ele>
        <time>2018-12-28T18:52:22Z</time>
      </trkpt>
      <trkpt lat="37.179870" lon="-113.274560">
        <ele>1106.836</ele>
        <time>2018-12-28T18:52:42Z</time>
      </trkpt>
      <trkpt lat="37.179760" lon="-113.274530">
        <ele>1107.227</ele>
        <time>2018-12-28T18:53:02Z</time>
      </trkpt>
      <trkpt lat="37.179650" lon="-113.274500">
        <ele>1107.668</ele>
        <time>2018-12-28T18:53:22Z</time>
      </trkpt>
      <trkpt lat="37.179540" lon="-113.274470">
        <ele>1108.914</ele>
        <time>2018-12-28T18:53:42Z</time>
      </trkpt>
      <trkpt lat="37.179430" lon="-113.274430">
        <ele>1111.408</ele>
        <time>2018-12-28T18:54:02Z</time>
      </trkpt>
      <trkpt lat="37.179340" lon="-113.274380">
        <ele>1113.975</ele>
        <time>2018-12-28T18:54:22Z</time>
      </trkpt>
      <trkpt lat="37.179270" lon="-113.274340">
        <ele>1115.383</ele>
        <time>2018-12-28T18:54:42Z</time>
      </trkpt>
      <trkpt lat="37.179140" lon="-113.274270">
        <ele>1116.288</ele>
        <time>2018-12-28T18:55:02Z</time>
      </trkpt>
      <trkpt lat="37.179000" lon="-113.274190">
        <ele>1116.259</ele>
        <time>2018-12-28T18:55:22Z</time>
      </trkpt>
      <trkpt lat="37.178920" lon="-113.274140">
        <ele>1115.333</ele>
        <time>2018-12-28T18:55:42Z</time>
      </trkpt>
      <trkpt lat="37.178780" lon="-113.274040">
        <ele>1114.297</ele>
        <time>2018-12-28T18:56:02Z</time>
      </trkpt>
      <trkpt lat="37.178710" lon="-113.273980">
        <ele>1113.826</ele>
        <time>2018-12-28T18:56:22Z</time>
      </trkpt>
      <trkpt lat="37.178630" lon="-113.273920">
        <ele>1113.421</ele>
        <time>2018-12-28T18:56:42Z</time>
      </trkpt>
      <trkpt lat="37.178530" lon="-113.273820">
        <ele>1113.444</ele>
        <time>2018-12-28T18:57:02Z</time>
      </trkpt>
      <trkpt lat="37.178430" lon="-113.273710">
        <ele>1114.605</ele>
        <time>2018-12-28T18:57:22Z</time>
      </trkpt>
      <trkpt lat="37.178340" lon="-113.273590">
        <ele>1117.215</ele>
        <time>2018-12-28T18:57:42Z</time>
      </trkpt>
      <trkpt lat="37.178220" lon="-113.273420">
        <ele>1120.408</ele>
        <time>2018-12-28T18:58:02Z</time>
      </trkpt>
      <trkpt lat="37.178130" lon="-113.273280">
        <ele>1121.417</ele>
        <time>2018-12-28T18:58:22Z</time>
      </trkpt>
      <trkpt lat="37.178060" lon="-113.273160">
        <ele>1122.115</ele>
        <time>2018-12-28T18:58:42Z</time>
      </trkpt>
      <trkpt lat="37.178010" lon="-113.273040">
        <ele>1123.660</ele>
        <time>2018-12-28T18:59:02Z</time>
      </trkpt>
      <trkpt lat="37.177970" lon="-113.272960">
        <ele>1124.691</ele>
        <time>2018-12-28T18:59:22Z</time>
      </trkpt>
      <trkpt lat="37.177910" lon="-113.272830">
        <ele>1126.495</ele>
        <time>2018-12-28T18:59:42Z</time>
      </trkpt>
      <trkpt lat="37.177810" lon="-113.272610">
        <ele>1130.269</ele>
        <time>2018-12-28T19:00:02Z</time>
      </trkpt>
      <trkpt lat="37.177710" lon="-113.272370">
        <ele>1132.678</ele>
        <time>2018-12-28T19:00:22Z</time>
      </trkpt>
      <trkpt lat="37.177640" lon="-113.272230">
        <ele>1132.883</ele>
        <time>2018-12-28T19:00:42Z</time>
      </trkpt>
      <trkpt lat="37.177550" lon="-113.272040">
        <ele>1133.966</ele>
        <time>2018-12-28T19:01:02Z</time>
      </trkpt>
      <trkpt lat="37.177480" lon="-113.271890">
        <ele>1135.029</ele>
        <time>2018-12-28T19:01:22Z</time>
      </trkpt>
      <trkpt lat="37.177410" lon="-113.271760">
        <ele>1134.721</ele>
        <time>2018-12-28T19:01:42Z</time>
      </trkpt>
      <trkpt lat="37.177350" lon="-113.271650">
        <ele>1134.608</ele>
        <time>2018-12-28T19:02:02Z</time>
      </trkpt>
      <trkpt lat="37.177280" lon="-113.271520">
        <ele>1135.549</ele>
        <time>2018-12-28T19:02:22Z</time>
      </trkpt>
      <trkpt lat="37.177210" lon="-113.271420">
        <ele>1135.727</ele>
        <time>2018-12-28T19:02:42Z</time>
      </trkpt>
      <trkpt lat="37.177160" lon="-113.271350">
        <ele>1135.592</ele>
        <time>2018-12-28T19:03:02Z</time>
      </trkpt>
      <trkpt lat="37.177080" lon="-113.271230">
        <ele>1135.053</ele>
        <time>2018-12-28T19:03:22Z</time>
      </trkpt>
      <trkpt lat="37.176980" lon="-113.271120">
        <ele>1135.237</ele>
        <time>2018-12-28T19:03:42Z</time>
      </trkpt>
      <trkpt lat="37.176900" lon="-113.271020">
        <ele>1135.721</ele>
        <time>2018-12-28T19:04:02Z</time>
      </trkpt>
      <trkpt lat="37.176730" lon="-113.270810">
        <ele>1141.610</ele>
        <time>2018-12-28T19:04:22Z</time>
      </trkpt>
      <trkpt lat="37.176660" lon="-113.270720">
        <ele>1144.495</ele>
        <time>2018-12-28T19:04:42Z</time>
      </trkpt>
      <trkpt lat="37.176560" lon="-113.270610">
        <ele>1146.745</ele>
        <time>2018-12-28T19:05:02Z</time>
      </trkpt>
      <trkpt lat="37.176480" lon="-113.270540">
        <ele>1147.247</ele>
        <time>2018-12-28T19:05:22Z</time>
      </trkpt>
      <trkpt lat="37.176350" lon="-113.270430">
        <ele>1146.611</ele>
        <time>2018-12-28T19:05:42Z</time>
      </trkpt>
      <trkpt lat="37.176000" lon="-113.270170">
        <ele>1143.808</ele>
        <time>2018-12-28T19:06:02Z</time>
      </trkpt>
      <trkpt lat="37.175700" lon="-113.269940">
        <ele>1143.087</ele>
        <time>2018-12-28T19:06:22Z</time>
      </trkpt>
      <trkpt lat="37.175420" lon="-113.269730">
        <ele>1143.195</ele>
        <time>2018-12-28T19:06:42Z</time>
      </trkpt>
      <trkpt lat="37.175120" lon="-113.269490">
        <ele>1144.770</ele>
        <time>2018-12-28T19:07:02Z</time>
      </trkpt>
      <trkpt lat="37.174580" lon="-113.269080">
        <ele>1144.081</ele>
        <time>2018-12-28T19:07:22Z</time>
      </trkpt>
      <trkpt lat="37.174390" lon="-113.268930">
        <ele>1144.395</ele>
        <time>2018-12-28T19:07:42Z</time>
      </trkpt>
      <trkpt lat="37.174150" lon="-113.268750">
        <ele>1143.059</ele>
        <time>2018-12-28T19:08:02Z</time>
      </trkpt>
      <trkpt lat="37.173830" lon="-113.268500">
        <ele>1143.078</ele>
        <time>2018-12-28T19:08:22Z</time>
      </trkpt>
      <trkpt lat="37.173640" lon="-113.268360">
        <ele>1144.033</ele>
        <time>2018-12-28T19:08:42Z</time>
      </trkpt>
      <trkpt lat="37.173350" lon="-113.268170">
        <ele>1144.997</ele>
        <time>2018-12-28T19:09:02Z</time>
      </trkpt>
      <trkpt lat="37.173240" lon="-113.268100">
        <ele>1145.623</ele>
        <time>2018-12-28T19:09:22Z</time>
      </trkpt>
      <trkpt lat="37.173150" lon="-113.268050">
        <ele>1146.525</ele>
        <time>2018-12-28T19:09:42Z</time>
      </trkpt>
      <trkpt lat="37.173050" lon="-113.267990">
        <ele>1147.508</ele>
        <time>2018-12-28T19:10:02Z</time>
      </trkpt>
      <trkpt lat="37.172840" lon="-113.267900">
        <ele>1148.842</ele>
        <time>2018-12-28T19:10:22Z</time>
      </trkpt>
      <trkpt lat="37.172710" lon="-113.267840">
        <ele>1149.810</ele>
        <time>2018-12-28T19:10:42Z</time>
      </trkpt>
      <trkpt lat="37.172600" lon="-113.267790">
        <ele>1150.545</ele>
        <time>2018-12-28T19:11:02Z</time>
      </trkpt>
      <trkpt lat="37.172430" lon="-113.267720">
        <ele>1152.266</ele>
        <time>2018-12-28T19:11:22Z</time>
      </trkpt>
      <trkpt lat="37.172320" lon="-113.267690">
        <ele>1152.430</ele>
        <time>2018-12-28T19:11:42Z</time>
      </trkpt>
      <trkpt lat="37.172220" lon="-113.267670">
        <ele>1151.074</ele>
        <time>2018-12-28T19:12:02Z</time>
      </trkpt>
      <trkpt lat="37.172130" lon="-113.267650">
        <ele>1149.583</ele>
        <time>2018-12-28T19:12:22Z</time>
      </trkpt>
      <trkpt lat="37.171940" lon="-113.267610">
        <ele>1149.258</ele>
        <time>2018-12-28T19:12:42Z</time>
      </trkpt>
      <trkpt lat="37.171730" lon="-113.267560">
        <ele>1151.245</ele>
        <time>2018-12-28T19:13:02Z</time>
      </trkpt>
      <trkpt lat="37.171530" lon="-113.267510">
        <ele>1154.247</ele>
        <time>2018-12-28T19:13:22Z</time>
      </trkpt>
      <trkpt lat="37.171310" lon="-113.267460">
        <ele>1156.411</ele>
        <time>2018-12-28T19:13:42Z</time>
      </trkpt>
      <trkpt lat="37.171160" lon="-113.267420">
        <ele>1157.108</ele>
        <time>2018-12-28T19:14:02Z</time>
      </trkpt>
      <trkpt lat="37.170970" lon="-113.267370">
        <ele>1156.947</ele>
        <time>2018-12-28T19:14:22Z</time>
      </trkpt>
      <trkpt lat="37.170790" lon="-113.267310">
        <ele>1157.045</ele>
        <time>2018-12-28T19:14:42Z</time>
      </trkpt>
      <trkpt lat="37.170720" lon="-113.267280">
        <ele>1157.070</ele>
        <time>2018-12-28T19:15:02Z</time>
      </trkpt>
      <trkpt lat="37.170620" lon="-113.267240">
        <ele>1157.131</ele>
        <time>2018-12-28T19:15:22Z</time>
      </trkpt>
      <trkpt lat="37.170460" lon="-113.267160">
        <ele>1157.395</ele>
        <time>2018-12-28T19:15:42Z</time>
      </trkpt>
      <trkpt lat="37.170340" lon="-113.267090">
        <ele>1158.429</ele>
        <time>2018-12-28T19:16:02Z</time>
      </trkpt>
      <trkpt lat="37.170250" lon="-113.267030">
        <ele>1161.078</ele>
        <time>2018-12-28T19:16:22Z</time>
      </trkpt>
      <trkpt lat="37.170170" lon="-113.266980">
        <ele>1162.973</ele>
        <time>2018-12-28T19:16:42Z</time>
      </trkpt>
      <trkpt lat="37.170090" lon="-113.266920">
        <ele>1164.282</ele>
        <time>2018-12-28T19:17:02Z</time>
      </trkpt>
      <trkpt lat="37.169940" lon="-113.266810">
        <ele>1165.843</ele>
        <time>2018-12-28T19:17:22Z</time>
      </trkpt>
      <trkpt lat="37.169860" lon="-113.266750">
        <ele>1166.517</ele>
        <time>2018-12-28T19:17:42Z</time>
      </trkpt>
      <trkpt lat="37.169750" lon="-113.266660">
        <ele>1165.708</ele>
        <time>2018-12-28T19:18:02Z</time>
      </trkpt>
      <trkpt lat="37.169600" lon="-113.266530">
        <ele>1163.591</ele>
        <time>2018-12-28T19:18:22Z</time>
      </trkpt>
      <trkpt lat="37.169480" lon="-113.266420">
        <ele>1162.699</ele>
        <time>2018-12-28T19:18:42Z</time>
      </trkpt>
      <trkpt lat="37.169320" lon="-113.266240">
        <ele>1161.824</ele>
        <time>2018-12-28T19:19:02Z</time>
      </trkpt>
      <trkpt lat="37.168870" lon="-113.265680">
        <ele>1164.065</ele>
        <time>2018-12-28T19:19:22Z</time>
      </trkpt>
      <trkpt lat="37.168670" lon="-113.265420">
        <ele>1168.679</ele>
        <time>2018-12-28T19:19:42Z</time>
      </trkpt>
      <trkpt lat="37.168550" lon="-113.265260">
        <ele>1170.293</ele>
        <time>2018-12-28T19:20:02Z</time>
      </trkpt>
      <trkpt lat="37.168370" lon="-113.265030">
        <ele>1171.412</ele>
        <time>2018-12-28T19:20:22Z</time>
      </trkpt>
      <trkpt lat="37.168280" lon="-113.264910">
        <ele>1173.457</ele>
        <time>2018-12-28T19:20:42Z</time>
      </trkpt>
      <trkpt lat="37.168110" lon="-113.264720">
        <ele>1175.394</ele>
        <time>2018-12-28T19:21:02Z</time>
      </trkpt>
      <trkpt lat="37.167990" lon="-113.264600">
        <ele>1176.357</ele>
        <time>2018-12-28T19:21:22Z</time>
      </trkpt>
      <trkpt lat="37.167910" lon="-113.264520">
        <ele>1177.222</ele>
        <time>2018-12-28T19:21:42Z</time>
      </trkpt>
      <trkpt lat="37.167770" lon="-113.264400">
        <ele>1177.508</ele>
        <time>2018-12-28T19:22:02Z</time>
      </trkpt>
      <trkpt lat="37.167660" lon="-113.264300">
        <ele>1177.342</ele>
        <time>2018-12-28T19:22:22Z</time>
      </trkpt>
      <trkpt lat="37.167540" lon="-113.264200">
        <ele>1176.820</ele>
        <time>2018-12-28T19:22:42Z</time>
      </trkpt>
      <trkpt lat="37.167430" lon="-113.264110">
        <ele>1177.215</ele>
        <time>2018-12-28T19:23:02Z</time>
      </trkpt>
      <trkpt lat="37.167290" lon="-113.264010">
        <ele>1177.636</ele>
        <time>2018-12-28T19:23:22Z</time>
      </trkpt>
      <trkpt lat="37.167210" lon="-113.263960">
        <ele>1177.460</ele>
        <time>2018-12-28T19:23:42Z</time>
      </trkpt>
      <trkpt lat="37.167090" lon="-113.263870">
        <ele>1178.154</ele>
        <time>2018-12-28T19:24:02Z</time>
      </trkpt>
      <trkpt lat="37.166970" lon="-113.263800">
        <ele>1179.573</ele>
        <time>2018-12-28T19:24:22Z</time>
      </trkpt>
      <trkpt lat="37.166850" lon="-113.263720">
        <ele>1181.028</ele>
        <time>2018-12-28T19:24:42Z</time>
      </trkpt>
      <trkpt lat="37.166700" lon="-113.263650">
        <ele>1182.527</ele>
        <time>2018-12-28T19:25:02Z</time>
      </trkpt>
      <trkpt lat="37.166580" lon="-113.263590">
        <ele>1183.368</ele>
        <time>2018-12-28T19:25:22Z</time>
      </trkpt>
      <trkpt lat="37.166380" lon="-113.263500">
        <ele>1184.014</ele>
        <time>2018-12-28T19:25:42Z</time>
      </trkpt>
      <trkpt lat="37.166200" lon="-113.263420">
        <ele>1184.908</ele>
        <time>2018-12-28T19:26:02Z</time>
      </trkpt>
      <trkpt lat="37.166020" lon="-113.263340">
        <ele>1185.655</ele>
        <time>2018-12-28T19:26:22Z</time>
      </trkpt>
      <trkpt lat="37.165790" lon="-113.263240">
        <ele>1186.723</ele>
        <time>2018-12-28T19:26:42Z</time>
      </trkpt>
      <trkpt lat="37.165590" lon="-113.263150">
        <ele>1187.898</ele>
        <time>2018-12-28T19:27:02Z</time>
      </trkpt>
      <trkpt lat="37.165360" lon="-113.263050">
        <ele>1189.289</ele>
        <time>2018-12-28T19:27:22Z</time>
      </trkpt>
      <trkpt lat="37.165240" lon="-113.263000">
        <ele>1190.143</ele>
        <time>2018-12-28T19:27:42Z</time>
      </trkpt>
      <trkpt lat="37.165100" lon="-113.262940">
        <ele>1191.117</ele>
        <time>2018-12-28T19:28:02Z</time>
      </trkpt>
      <trkpt lat="37.164800" lon="-113.262810">
        <ele>1193.226</ele>
        <time>2018-12-28T19:28:22Z</time>
      </trkpt>
      <trkpt lat="37.164560" lon="-113.262700">
        <ele>1194.751</ele>
        <time>2018-12-28T19:28:42Z</time>
      </trkpt>
      <trkpt lat="37.164270" lon="-113.262590">
        <ele>1195.259</ele>
        <time>2018-12-28T19:29:02Z</time>
      </trkpt>
      <trkpt lat="37.162920" lon="-113.261990">
        <ele>1194.103</ele>
        <time>2018-12-28T19:29:22Z</time>
      </trkpt>
      <trkpt lat="37.162160" lon="-113.261660">
        <ele>1192.323</ele>
        <time>2018-12-28T19:29:42Z</time>
      </trkpt>
      <trkpt lat="37.161790" lon="-113.261500">
        <ele>1194.708</ele>
        <time>2018-12-28T19:30:02Z</time>
      </trkpt>
      <trkpt lat="37.161540" lon="-113.261390">
        <ele>1195.628</ele>
        <time>2018-12-28T19:30:22Z</time>
      </trkpt>
      <trkpt lat="37.161220" lon="-113.261250">
        <ele>1195.946</ele>
        <time>2018-12-28T19:30:42Z</time>
      </trkpt>
      <trkpt lat="37.160960" lon="-113.261140">
        <ele>1195.931</ele>
        <time>2018-12-28T19:31:02Z</time>
      </trkpt>
      <trkpt lat="37.156170" lon="-113.259050">
        <ele>1197.492</ele>
        <time>2018-12-28T19:31:22Z</time>
      </trkpt>
      <trkpt lat="37.154910" lon="-113.258500">
        <ele>1200.756</ele>
        <time>2018-12-28T19:31:42Z</time>
      </trkpt>
      <trkpt lat="37.153460" lon="-113.257860">
        <ele>1206.370</ele>
        <time>2018-12-28T19:32:02Z</time>
      </trkpt>
      <trkpt lat="37.153100" lon="-113.257700">
        <ele>1207.899</ele>
        <time>2018-12-28T19:32:22Z</time>
      </trkpt>
      <trkpt lat="37.152710" lon="-113.257530">
        <ele>1208.294</ele>
        <time>2018-12-28T19:32:42Z</time>
      </trkpt>
      <trkpt lat="37.152410" lon="-113.257400">
        <ele>1208.877</ele>
        <time>2018-12-28T19:33:02Z</time>
      </trkpt>
      <trkpt lat="37.150660" lon="-113.256640">
        <ele>1211.861</ele>
        <time>2018-12-28T19:33:22Z</time>
      </trkpt>
      <trkpt lat="37.150210" lon="-113.256440">
        <ele>1213.627</ele>
        <time>2018-12-28T19:33:42Z</time>
      </trkpt>
      <trkpt lat="37.149890" lon="-113.256300">
        <ele>1215.408</ele>
        <time>2018-12-28T19:34:02Z</time>
      </trkpt>
      <trkpt lat="37.149370" lon="-113.256070">
        <ele>1219.530</ele>
        <time>2018-12-28T19:34:22Z</time>
      </trkpt>
      <trkpt lat="37.148750" lon="-113.255800">
        <ele>1220.388</ele>
        <time>2018-12-28T19:34:42Z</time>
      </trkpt>
      <trkpt lat="37.148230" lon="-113.255570">
        <ele>1221.233</ele>
        <time>2018-12-28T19:35:02Z</time>
      </trkpt>
      <trkpt lat="37.147810" lon="-113.255380">
        <ele>1221.684</ele>
        <time>2018-12-28T19:35:22Z</time>
      </trkpt>
      <trkpt lat="37.146870" lon="-113.254970">
        <ele>1224.438</ele>
        <time>2018-12-28T19:35:42Z</time>
      </trkpt>
      <trkpt lat="37.146380" lon="-113.254750">
        <ele>1226.652</ele>
        <time>2018-12-28T19:36:02Z</time>
      </trkpt>
      <trkpt lat="37.145630" lon="-113.254420">
        <ele>1230.981</ele>
        <time>2018-12-28T19:36:22Z</time>
      </trkpt>
      <trkpt lat="37.143930" lon="-113.253680">
        <ele>1242.136</ele>
        <time>2018-12-28T19:36:42Z</time>
      </trkpt>
      <trkpt lat="37.143560" lon="-113.253520">
        <ele>1244.418</ele>
        <time>2018-12-28T19:37:02Z</time>
      </trkpt>
      <trkpt lat="37.143390" lon="-113.253440">
        <ele>1244.698</ele>
        <time>2018-12-28T19:37:22Z</time>
      </trkpt>
      <trkpt lat="37.143210" lon="-113.253360">
        <ele>1245.217</ele>
        <time>2018-12-28T19:37:42Z</time>
      </trkpt>
      <trkpt lat="37.142950" lon="-113.253240">
        <ele>1245.308</ele>
        <time>2018-12-28T19:38:02Z</time>
      </trkpt>
      <trkpt lat="37.142760" lon="-113.253130">
        <ele>1245.094</ele>
        <time>2018-12-28T19:38:22Z</time>
      </trkpt>
      <trkpt lat="37.142540" lon="-113.253000">
        <ele>1245.072</ele>
        <time>2018-12-28T19:38:42Z</time>
      </trkpt>
      <trkpt lat="37.142330" lon="-113.252860">
        <ele>1245.377</ele>
        <time>2018-12-28T19:39:02Z</time>
      </trkpt>
      <trkpt lat="37.142150" lon="-113.252730">
        <ele>1245.738</ele>
        <time>2018-12-28T19:39:22Z</time>
      </trkpt>
      <trkpt lat="37.142020" lon="-113.252630">
        <ele>1246.542</ele>
        <time>2018-12-28T19:39:42Z</time>
      </trkpt>
      <trkpt lat="37.141860" lon="-113.252510">
        <ele>1247.366</ele>
        <time>2018-12-28T19:40:02Z</time>
      </trkpt>
      <trkpt lat="37.141820" lon="-113.252480">
        <ele>1247.575</ele>
        <time>2018-12-28T19:40:22Z</time>
      </trkpt>
      <trkpt lat="37.141620" lon="-113.252310">
        <ele>1249.150</ele>
        <time>2018-12-28T19:40:42Z</time>
      </trkpt>
      <trkpt lat="37.141410" lon="-113.252110">
        <ele>1251.053</ele>
        <time>2018-12-28T19:41:02Z</time>
      </trkpt>
      <trkpt lat="37.141300" lon="-113.251990">
        <ele>1252.204</ele>
        <time>2018-12-28T19:41:22Z</time>
      </trkpt>
      <trkpt lat="37.141190" lon="-113.251860">
        <ele>1253.314</ele>
        <time>2018-12-28T19:41:42Z</time>
      </trkpt>
      <trkpt lat="37.140990" lon="-113.251630">
        <ele>1255.108</ele>
        <time>2018-12-28T19:42:02Z</time>
      </trkpt>
      <trkpt lat="37.140830" lon="-113.251430">
        <ele>1255.538</ele>
        <time>2018-12-28T19:42:22Z</time>
      </trkpt>
      <trkpt lat="37.140720" lon="-113.251270">
        <ele>1254.846</ele>
        <time>2018-12-28T19:42:42Z</time>
      </trkpt>
      <trkpt lat="37.140630" lon="-113.251150">
        <ele>1254.961</ele>
        <time>2018-12-28T19:43:02Z</time>
      </trkpt>
      <trkpt lat="37.140480" lon="-113.250920">
        <ele>1256.582</ele>
        <time>2018-12-28T19:43:22Z</time>
      </trkpt>
      <trkpt lat="37.140370" lon="-113.250750">
        <ele>1258.046</ele>
        <time>2018-12-28T19:43:42Z</time>
      </trkpt>
      <trkpt lat="37.140320" lon="-113.250670">
        <ele>1258.850</ele>
        <time>2018-12-28T19:44:02Z</time>
      </trkpt>
      <trkpt lat="37.140260" lon="-113.250570">
        <ele>1259.699</ele>
        <time>2018-12-28T19:44:22Z</time>
      </trkpt>
      <trkpt lat="37.140180" lon="-113.250440">
        <ele>1260.884</ele>
        <time>2018-12-28T19:44:42Z</time>
      </trkpt>
      <trkpt lat="37.140110" lon="-113.250300">
        <ele>1261.519</ele>
        <time>2018-12-28T19:45:02Z</time>
      </trkpt>
      <trkpt lat="37.140020" lon="-113.250120">
        <ele>1262.009</ele>
        <time>2018-12-28T19:45:22Z</time>
      </trkpt>
      <trkpt lat="37.139930" lon="-113.249940">
        <ele>1262.819</ele>
        <time>2018-12-28T19:45:42Z</time>
      </trkpt>
      <trkpt lat="37.139850" lon="-113.249760">
        <ele>1264.908</ele>
        <time>2018-12-28T19:46:02Z</time>
      </trkpt>
      <trkpt lat="37.139670" lon="-113.249340">
        <ele>1271.554</ele>
        <time>2018-12-28T19:46:22Z</time>
      </trkpt>
      <trkpt lat="37.139510" lon="-113.248880">
        <ele>1272.842</ele>
        <time>2018-12-28T19:46:42Z</time>
      </trkpt>
      <trkpt lat="37.139340" lon="-113.248370">
        <ele>1273.517</ele>
        <time>2018-12-28T19:47:02Z</time>
      </trkpt>
      <trkpt lat="37.139310" lon="-113.248290">
        <ele>1273.888</ele>
        <time>2018-12-28T19:47:22Z</time>
      </trkpt>
      <trkpt lat="37.139220" lon="-113.248020">
        <ele>1275.942</ele>
        <time>2018-12-28T19:47:42Z</time>
      </trkpt>
      <trkpt lat="37.139130" lon="-113.247800">
        <ele>1277.086</ele>
        <time>2018-12-28T19:48:02Z</time>
      </trkpt>
      <trkpt lat="37.139080" lon="-113.247680">
        <ele>1277.325</ele>
        <time>2018-12-28T19:48:22Z</time>
      </trkpt>
      <trkpt lat="37.139030" lon="-113.247570">
        <ele>1278.580</ele>
        <time>2018-12-28T19:48:42Z</time>
      </trkpt>
      <trkpt lat="37.138940" lon="-113.247380">
        <ele>1281.925</ele>
        <time>2018-12-28T19:49:02Z</time>
      </trkpt>
      <trkpt lat="37.138890" lon="-113.247290">
        <ele>1282.826</ele>
        <time>2018-12-28T19:49:22Z</time>
      </trkpt>
      <trkpt lat="37.138820" lon="-113.247160">
        <ele>1283.708</ele>
        <time>2018-12-28T19:49:42Z</time>
      </trkpt>
      <trkpt lat="37.138730" lon="-113.247020">
        <ele>1284.308</ele>
        <time>2018-12-28T19:50:02Z</time>
      </trkpt>
      <trkpt lat="37.138650" lon="-113.246900">
        <ele>1284.475</ele>
        <time>2018-12-28T19:50:22Z</time>
      </trkpt>
      <trkpt lat="37.138520" lon="-113.246720">
        <ele>1284.053</ele>
        <time>2018-12-28T19:50:42Z</time>
      </trkpt>
      <trkpt lat="37.138390" lon="-113.246560">
        <ele>1284.288</ele>
        <time>2018-12-28T19:51:02Z</time>
      </trkpt>
      <trkpt lat="37.138280" lon="-113.246430">
        <ele>1286.299</ele>
        <time>2018-12-28T19:51:22Z</time>
      </trkpt>
      <trkpt lat="37.138190" lon="-113.246330">
        <ele>1287.973</ele>
        <time>2018-12-28T19:51:42Z</time>
      </trkpt>
      <trkpt lat="37.138070" lon="-113.246220">
        <ele>1290.187</ele>
        <time>2018-12-28T19:52:02Z</time>
      </trkpt>
      <trkpt lat="37.137920" lon="-113.246070">
        <ele>1292.966</ele>
        <time>2018-12-28T19:52:22Z</time>
      </trkpt>
      <trkpt lat="37.137680" lon="-113.245850">
        <ele>1293.121</ele>
        <time>2018-12-28T19:52:42Z</time>
      </trkpt>
      <trkpt lat="37.137510" lon="-113.245690">
        <ele>1294.122</ele>
        <time>2018-12-28T19:53:02Z</time>
      </trkpt>
      <trkpt lat="37.137400" lon="-113.245580">
        <ele>1297.362</ele>
        <time>2018-12-28T19:53:22Z</time>
      </trkpt>
      <trkpt lat="37.137220" lon="-113.245390">
        <ele>1301.208</ele>
        <time>2018-12-28T19:53:42Z</time>
      </trkpt>
      <trkpt lat="37.137160" lon="-113.245320">
        <ele>1302.308</ele>
        <time>2018-12-28T19:54:02Z</time>
      </trkpt>
      <trkpt lat="37.136440" lon="-113.244480">
        <ele>1305.375</ele>
        <time>2018-12-28T19:54:22Z</time>
      </trkpt>
      <trkpt lat="37.136080" lon="-113.243980">
        <ele>1308.523</ele>
        <time>2018-12-28T19:54:42Z</time>
      </trkpt>
      <trkpt lat="37.135940" lon="-113.243790">
        <ele>1309.948</ele>
        <time>2018-12-28T19:55:02Z</time>
      </trkpt>
      <trkpt lat="37.135770" lon="-113.243540">
        <ele>1312.359</ele>
        <time>2018-12-28T19:55:22Z</time>
      </trkpt>
      <trkpt lat="37.135580" lon="-113.243260">
        <ele>1314.033</ele>
        <time>2018-12-28T19:55:42Z</time>
      </trkpt>
      <trkpt lat="37.135320" lon="-113.242850">
        <ele>1313.957</ele>
        <time>2018-12-28T19:56:02Z</time>
      </trkpt>
      <trkpt lat="37.135160" lon="-113.242570">
        <ele>1313.726</ele>
        <time>2018-12-28T19:56:22Z</time>
      </trkpt>
      <trkpt lat="37.135080" lon="-113.242430">
        <ele>1313.961</ele>
        <time>2018-12-28T19:56:42Z</time>
      </trkpt>
      <trkpt lat="37.135020" lon="-113.242320">
        <ele>1314.025</ele>
        <time>2018-12-28T19:57:02Z</time>
      </trkpt>
      <trkpt lat="37.134930" lon="-113.242140">
        <ele>1314.526</ele>
        <time>2018-12-28T19:57:22Z</time>
      </trkpt>
      <trkpt lat="37.134810" lon="-113.241920">
        <ele>1315.008</ele>
        <time>2018-12-28T19:57:42Z</time>
      </trkpt>
      <trkpt lat="37.134630" lon="-113.241550">
        <ele>1316.208</ele>
        <time>2018-12-28T19:58:02Z</time>
      </trkpt>
      <trkpt lat="37.134420" lon="-113.241090">
        <ele>1317.665</ele>
        <time>2018-12-28T19:58:22Z</time>
      </trkpt>
      <trkpt lat="37.134280" lon="-113.240760">
        <ele>1317.623</ele>
        <time>2018-12-28T19:58:42Z</time>
      </trkpt>
      <trkpt lat="37.134210" lon="-113.240600">
        <ele>1318.198</ele>
        <time>2018-12-28T19:59:02Z</time>
      </trkpt>
      <trkpt lat="37.134080" lon="-113.240300">
        <ele>1318.869</ele>
        <time>2018-12-28T19:59:22Z</time>
      </trkpt>
      <trkpt lat="37.134020" lon="-113.240140">
        <ele>1319.013</ele>
        <time>2018-12-28T19:59:42Z</time>
      </trkpt>
      <trkpt lat="37.133890" lon="-113.239790">
        <ele>1319.277</ele>
        <time>2018-12-28T20:00:02Z</time>
      </trkpt>
      <trkpt lat="37.133800" lon="-113.239530">
        <ele>1319.466</ele>
        <time>2018-12-28T20:00:22Z</time>
      </trkpt>
      <trkpt lat="37.133710" lon="-113.239260">
        <ele>1319.921</ele>
        <time>2018-12-28T20:00:42Z</time>
      </trkpt>
      <trkpt lat="37.133650" lon="-113.239060">
        <ele>1320.371</ele>
        <time>2018-12-28T20:01:02Z</time>
      </trkpt>
      <trkpt lat="37.133570" lon="-113.238780">
        <ele>1321.041</ele>
        <time>2018-12-28T20:01:22Z</time>
      </trkpt>
      <trkpt lat="37.133410" lon="-113.238160">
        <ele>1322.115</ele>
        <time>2018-12-28T20:01:42Z</time>
      </trkpt>
      <trkpt lat="37.133260" lon="-113.237530">
        <ele>1322.908</ele>
        <time>2018-12-28T20:02:02Z</time>
      </trkpt>
      <trkpt lat="37.133080" lon="-113.236770">
        <ele>1323.970</ele>
        <time>2018-12-28T20:02:22Z</time>
      </trkpt>
      <trkpt lat="37.132910" lon="-113.236080">
        <ele>1324.968</ele>
        <time>2018-12-28T20:02:42Z</time>
      </trkpt>
      <trkpt lat="37.132750" lon="-113.235430">
        <ele>1326.233</ele>
        <time>2018-12-28T20:03:02Z</time>
      </trkpt>
      <trkpt lat="37.132280" lon="-113.233390">
        <ele>1328.614</ele>
        <time>2018-12-28T20:03:22Z</time>
      </trkpt>
      <trkpt lat="37.131180" lon="-113.228770">
        <ele>1333.178</ele>
        <time>2018-12-28T20:03:42Z</time>
      </trkpt>
      <trkpt lat="37.130970" lon="-113.227870">
        <ele>1336.612</ele>
        <time>2018-12-28T20:04:02Z</time>
      </trkpt>
      <trkpt lat="37.130700" lon="-113.226770">
        <ele>1340.871</ele>
        <time>2018-12-28T20:04:22Z</time>
      </trkpt>
      <trkpt lat="37.130450" lon="-113.225700">
        <ele>1342.856</ele>
        <time>2018-12-28T20:04:42Z</time>
      </trkpt>
      <trkpt lat="37.130240" lon="-113.224830">
        <ele>1344.831</ele>
        <time>2018-12-28T20:05:02Z</time>
      </trkpt>
      <trkpt lat="37.128100" lon="-113.215810">
        <ele>1361.661</ele>
        <time>2018-12-28T20:05:22Z</time>
      </trkpt>
      <trkpt lat="37.127650" lon="-113.213920">
        <ele>1368.307</ele>
        <time>2018-12-28T20:05:42Z</time>
      </trkpt>
      <trkpt lat="37.126850" lon="-113.210570">
        <ele>1374.708</ele>
        <time>2018-12-28T20:06:02Z</time>
      </trkpt>
      <trkpt lat="37.125360" lon="-113.204290">
        <ele>1390.066</ele>
        <time>2018-12-28T20:06:22Z</time>
      </trkpt>
      <trkpt lat="37.124970" lon="-113.202670">
        <ele>1393.164</ele>
        <time>2018-12-28T20:06:42Z</time>
      </trkpt>
      <trkpt lat="37.124410" lon="-113.200300">
        <ele>1399.319</ele>
        <time>2018-12-28T20:07:02Z</time>
      </trkpt>
      <trkpt lat="37.123650" lon="-113.197100">
        <ele>1412.130</ele>
        <time>2018-12-28T20:07:22Z</time>
      </trkpt>
      <trkpt lat="37.122550" lon="-113.192460">
        <ele>1427.324</ele>
        <time>2018-12-28T20:07:42Z</time>
      </trkpt>
      <trkpt lat="37.122420" lon="-113.191920">
        <ele>1428.388</ele>
        <time>2018-12-28T20:08:02Z</time>
      </trkpt>
      <trkpt lat="37.122180" lon="-113.190920">
        <ele>1429.677</ele>
        <time>2018-12-28T20:08:22Z</time>
      </trkpt>
      <trkpt lat="37.122020" lon="-113.190240">
        <ele>1430.622</ele>
        <time>2018-12-28T20:08:42Z</time>
      </trkpt>
      <trkpt lat="37.121880" lon="-113.189630">
        <ele>1431.627</ele>
        <time>2018-12-28T20:09:02Z</time>
      </trkpt>
      <trkpt lat="37.121650" lon="-113.188660">
        <ele>1432.768</ele>
        <time>2018-12-28T20:09:22Z</time>
      </trkpt>
      <trkpt lat="37.121430" lon="-113.187750">
        <ele>1433.314</ele>
        <time>2018-12-28T20:09:42Z</time>
      </trkpt>
      <trkpt lat="37.121290" lon="-113.187170">
        <ele>1433.308</ele>
        <time>2018-12-28T20:10:02Z</time>
      </trkpt>
      <trkpt lat="37.121190" lon="-113.186750">
        <ele>1432.535</ele>
        <time>2018-12-28T20:10:22Z</time>
      </trkpt>
      <trkpt lat="37.120880" lon="-113.185420">
        <ele>1431.723</ele>
        <time>2018-12-28T20:10:42Z</time>
      </trkpt>
      <trkpt lat="37.120750" lon="-113.184900">
        <ele>1431.938</ele>
        <time>2018-12-28T20:11:02Z</time>
      </trkpt>
      <trkpt lat="37.120630" lon="-113.184370">
        <ele>1430.939</ele>
        <time>2018-12-28T20:11:22Z</time>
      </trkpt>
      <trkpt lat="37.120320" lon="-113.183060">
        <ele>1426.633</ele>
        <time>2018-12-28T20:11:42Z</time>
      </trkpt>
      <trkpt lat="37.120200" lon="-113.182530">
        <ele>1426.127</ele>
        <time>2018-12-28T20:12:02Z</time>
      </trkpt>
      <trkpt lat="37.120000" lon="-113.181610">
        <ele>1425.636</ele>
        <time>2018-12-28T20:12:22Z</time>
      </trkpt>
      <trkpt lat="37.119970" lon="-113.181480">
        <ele>1425.591</ele>
        <time>2018-12-28T20:12:42Z</time>
      </trkpt>
      <trkpt lat="37.119730" lon="-113.180280">
        <ele>1423.764</ele>
        <time>2018-12-28T20:13:02Z</time>
      </trkpt>
      <trkpt lat="37.119650" lon="-113.179870">
        <ele>1423.006</ele>
        <time>2018-12-28T20:13:22Z</time>
      </trkpt>
      <trkpt lat="37.119560" lon="-113.179350">
        <ele>1422.016</ele>
        <time>2018-12-28T20:13:42Z</time>
      </trkpt>
      <trkpt lat="37.119460" lon="-113.178820">
        <ele>1420.708</ele>
        <time>2018-12-28T20:14:02Z</time>
      </trkpt>
      <trkpt lat="37.119290" lon="-113.177810">
        <ele>1416.879</ele>
        <time>2018-12-28T20:14:22Z</time>
      </trkpt>
      <trkpt lat="37.119090" lon="-113.176650">
        <ele>1416.877</ele>
        <time>2018-12-28T20:14:42Z</time>
      </trkpt>
      <trkpt lat="37.118990" lon="-113.175990">
        <ele>1416.542</ele>
        <time>2018-12-28T20:15:02Z</time>
      </trkpt>
      <trkpt lat="37.118910" lon="-113.175440">
        <ele>1414.823</ele>
        <time>2018-12-28T20:15:22Z</time>
      </trkpt>
      <trkpt lat="37.118860" lon="-113.175030">
        <ele>1413.767</ele>
        <time>2018-12-28T20:15:42Z</time>
      </trkpt>
      <trkpt lat="37.118800" lon="-113.174630">
        <ele>1412.711</ele>
        <time>2018-12-28T20:16:02Z</time>
      </trkpt>
      <trkpt lat="37.118750" lon="-113.174250">
        <ele>1411.570</ele>
        <time>2018-12-28T20:16:22Z</time>
      </trkpt>
      <trkpt lat="37.118720" lon="-113.173980">
        <ele>1410.665</ele>
        <time>2018-12-28T20:16:42Z</time>
      </trkpt>
      <trkpt lat="37.118680" lon="-113.173670">
        <ele>1409.633</ele>
        <time>2018-12-28T20:17:02Z</time>
      </trkpt>
      <trkpt lat="37.118650" lon="-113.173400">
        <ele>1408.923</ele>
        <time>2018-12-28T20:17:22Z</time>
      </trkpt>
      <trkpt lat="37.118590" lon="-113.172980">
        <ele>1408.015</ele>
        <time>2018-12-28T20:17:42Z</time>
      </trkpt>
      <trkpt lat="37.118570" lon="-113.172780">
        <ele>1407.608</ele>
        <time>2018-12-28T20:18:02Z</time>
      </trkpt>
      <trkpt lat="37.118540" lon="-113.172480">
        <ele>1406.946</ele>
        <time>2018-12-28T20:18:22Z</time>
      </trkpt>
      <trkpt lat="37.118350" lon="-113.170570">
        <ele>1405.094</ele>
        <time>2018-12-28T20:18:42Z</time>
      </trkpt>
      <trkpt lat="37.118310" lon="-113.170130">
        <ele>1405.079</ele>
        <time>2018-12-28T20:19:02Z</time>
      </trkpt>
      <trkpt lat="37.118270" lon="-113.169740">
        <ele>1406.030</ele>
        <time>2018-12-28T20:19:22Z</time>
      </trkpt>
      <trkpt lat="37.118210" lon="-113.169180">
        <ele>1407.344</ele>
        <time>2018-12-28T20:19:42Z</time>
      </trkpt>
      <trkpt lat="37.118150" lon="-113.168530">
        <ele>1408.298</ele>
        <time>2018-12-28T20:20:02Z</time>
      </trkpt>
      <trkpt lat="37.118140" lon="-113.168370">
        <ele>1408.457</ele>
        <time>2018-12-28T20:20:22Z</time>
      </trkpt>
      <trkpt lat="37.118100" lon="-113.167980">
        <ele>1409.182</ele>
        <time>2018-12-28T20:20:42Z</time>
      </trkpt>
      <trkpt lat="37.118070" lon="-113.167690">
        <ele>1409.523</ele>
        <time>2018-12-28T20:21:02Z</time>
      </trkpt>
      <trkpt lat="37.118040" lon="-113.167430">
        <ele>1409.883</ele>
        <time>2018-12-28T20:21:22Z</time>
      </trkpt>
      <trkpt lat="37.118000" lon="-113.167010">
        <ele>1410.011</ele>
        <time>2018-12-28T20:21:42Z</time>
      </trkpt>
      <trkpt lat="37.117950" lon="-113.166490">
        <ele>1410.608</ele>
        <time>2018-12-28T20:22:02Z</time>
      </trkpt>
      <trkpt lat="37.117910" lon="-113.166070">
        <ele>1412.215</ele>
        <time>2018-12-28T20:22:22Z</time>
      </trkpt>
      <trkpt lat="37.117870" lon="-113.165680">
        <ele>1415.083</ele>
        <time>2018-12-28T20:22:42Z</time>
      </trkpt>
      <trkpt lat="37.117850" lon="-113.165410">
        <ele>1415.278</ele>
        <time>2018-12-28T20:23:02Z</time>
      </trkpt>
      <trkpt lat="37.117780" lon="-113.164730">
        <ele>1416.529</ele>
        <time>2018-12-28T20:23:22Z</time>
      </trkpt>
      <trkpt lat="37.117730" lon="-113.164250">
        <ele>1418.833</ele>
        <time>2018-12-28T20:23:42Z</time>
      </trkpt>
      <trkpt lat="37.117700" lon="-113.163930">
        <ele>1420.417</ele>
        <time>2018-12-28T20:24:02Z</time>
      </trkpt>
      <trkpt lat="37.117630" lon="-113.163020">
        <ele>1422.096</ele>
        <time>2018-12-28T20:24:22Z</time>
      </trkpt>
      <trkpt lat="37.117590" lon="-113.162610">
        <ele>1421.611</ele>
        <time>2018-12-28T20:24:42Z</time>
      </trkpt>
      <trkpt lat="37.117570" lon="-113.162350">
        <ele>1421.572</ele>
        <time>2018-12-28T20:25:02Z</time>
      </trkpt>
      <trkpt lat="37.117550" lon="-113.162090">
        <ele>1421.313</ele>
        <time>2018-12-28T20:25:22Z</time>
      </trkpt>
      <trkpt lat="37.117530" lon="-113.161810">
        <ele>1421.314</ele>
        <time>2018-12-28T20:25:42Z</time>
      </trkpt>
      <trkpt lat="37.117500" lon="-113.161560">
        <ele>1421.508</ele>
        <time>2018-12-28T20:26:02Z</time>
      </trkpt>
      <trkpt lat="37.117470" lon="-113.161180">
        <ele>1422.170</ele>
        <time>2018-12-28T20:26:22Z</time>
      </trkpt>
      <trkpt lat="37.117440" lon="-113.160790">
        <ele>1423.228</ele>
        <time>2018-12-28T20:26:42Z</time>
      </trkpt>
      <trkpt lat="37.117390" lon="-113.160360">
        <ele>1424.413</ele>
        <time>2018-12-28T20:27:02Z</time>
      </trkpt>
      <trkpt lat="37.117370" lon="-113.160150">
        <ele>1424.894</ele>
        <time>2018-12-28T20:27:22Z</time>
      </trkpt>
      <trkpt lat="37.117330" lon="-113.159890">
        <ele>1425.168</ele>
        <time>2018-12-28T20:27:42Z</time>
      </trkpt>
      <trkpt lat="37.117290" lon="-113.159630">
        <ele>1425.562</ele>
        <time>2018-12-28T20:28:02Z</time>
      </trkpt>
      <trkpt lat="37.117260" lon="-113.159460">
        <ele>1425.771</ele>
        <time>2018-12-28T20:28:22Z</time>
      </trkpt>
      <trkpt lat="37.117210" lon="-113.159210">
        <ele>1425.996</ele>
        <time>2018-12-28T20:28:42Z</time>
      </trkpt>
      <trkpt lat="37.117140" lon="-113.158880">
        <ele>1426.098</ele>
        <time>2018-12-28T20:29:02Z</time>
      </trkpt>
      <trkpt lat="37.117100" lon="-113.158730">
        <ele>1426.115</ele>
        <time>2018-12-28T20:29:22Z</time>
      </trkpt>
      <trkpt lat="37.117070" lon="-113.158620">
        <ele>1426.426</ele>
        <time>2018-12-28T20:29:42Z</time>
      </trkpt>
      <trkpt lat="37.117020" lon="-113.158430">
        <ele>1427.008</ele>
        <time>2018-12-28T20:30:02Z</time>
      </trkpt>
      <trkpt lat="37.116970" lon="-113.158290">
        <ele>1427.612</ele>
        <time>2018-12-28T20:30:22Z</time>
      </trkpt>
      <trkpt lat="37.116910" lon="-113.158110">
        <ele>1428.360</ele>
        <time>2018-12-28T20:30:42Z</time>
      </trkpt>
      <trkpt lat="37.116870" lon="-113.157990">
        <ele>1429.085</ele>
        <time>2018-12-28T20:31:02Z</time>
      </trkpt>
      <trkpt lat="37.116830" lon="-113.157870">
        <ele>1429.676</ele>
        <time>2018-12-28T20:31:22Z</time>
      </trkpt>
      <trkpt lat="37.116760" lon="-113.157670">
        <ele>1430.010</ele>
        <time>2018-12-28T20:31:42Z</time>
      </trkpt>
      <trkpt lat="37.116680" lon="-113.157480">
        <ele>1430.714</ele>
        <time>2018-12-28T20:32:02Z</time>
      </trkpt>
      <trkpt lat="37.116640" lon="-113.157370">
        <ele>1431.023</ele>
        <time>2018-12-28T20:32:22Z</time>
      </trkpt>
      <trkpt lat="37.116580" lon="-113.157230">
        <ele>1431.228</ele>
        <time>2018-12-28T20:32:42Z</time>
      </trkpt>
      <trkpt lat="37.116490" lon="-113.157020">
        <ele>1431.423</ele>
        <time>2018-12-28T20:33:02Z</time>
      </trkpt>
      <trkpt lat="37.116370" lon="-113.156760">
        <ele>1431.883</ele>
        <time>2018-12-28T20:33:22Z</time>
      </trkpt>
      <trkpt lat="37.116250" lon="-113.156500">
        <ele>1431.711</ele>
        <time>2018-12-28T20:33:42Z</time>
      </trkpt>
      <trkpt lat="37.116160" lon="-113.156320">
        <ele>1431.908</ele>
        <time>2018-12-28T20:34:02Z</time>
      </trkpt>
      <trkpt lat="37.116060" lon="-113.156120">
        <ele>1431.965</ele>
        <time>2018-12-28T20:34:22Z</time>
      </trkpt>
      <trkpt lat="37.115980" lon="-113.155970">
        <ele>1431.683</ele>
        <time>2018-12-28T20:34:42Z</time>
      </trkpt>
      <trkpt lat="37.115910" lon="-113.155840">
        <ele>1431.448</ele>
        <time>2018-12-28T20:35:02Z</time>
      </trkpt>
      <trkpt lat="37.115800" lon="-113.155660">
        <ele>1431.249</ele>
        <time>2018-12-28T20:35:22Z</time>
      </trkpt>
      <trkpt lat="37.115570" lon="-113.155250">
        <ele>1430.753</ele>
        <time>2018-12-28T20:35:42Z</time>
      </trkpt>
      <trkpt lat="37.115260" lon="-113.154700">
        <ele>1430.747</ele>
        <time>2018-12-28T20:36:02Z</time>
      </trkpt>
      <trkpt lat="37.114940" lon="-113.154150">
        <ele>1430.456</ele>
        <time>2018-12-28T20:36:22Z</time>
      </trkpt>
      <trkpt lat="37.114620" lon="-113.153590">
        <ele>1430.241</ele>
        <time>2018-12-28T20:36:42Z</time>
      </trkpt>
      <trkpt lat="37.114480" lon="-113.153360">
        <ele>1430.542</ele>
        <time>2018-12-28T20:37:02Z</time>
      </trkpt>
      <trkpt lat="37.114300" lon="-113.153040">
        <ele>1430.622</ele>
        <time>2018-12-28T20:37:22Z</time>
      </trkpt>
      <trkpt lat="37.114110" lon="-113.152710">
        <ele>1430.214</ele>
        <time>2018-12-28T20:37:42Z</time>
      </trkpt>
      <trkpt lat="37.113730" lon="-113.152020">
        <ele>1428.508</ele>
        <time>2018-12-28T20:38:02Z</time>
      </trkpt>
      <trkpt lat="37.113180" lon="-113.151060">
        <ele>1428.687</ele>
        <time>2018-12-28T20:38:22Z</time>
      </trkpt>
      <trkpt lat="37.112820" lon="-113.150450">
        <ele>1429.735</ele>
        <time>2018-12-28T20:38:42Z</time>
      </trkpt>
      <trkpt lat="37.112380" lon="-113.149730">
        <ele>1430.990</ele>
        <time>2018-12-28T20:39:02Z</time>
      </trkpt>
      <trkpt lat="37.111800" lon="-113.148730">
        <ele>1432.451</ele>
        <time>2018-12-28T20:39:22Z</time>
      </trkpt>
      <trkpt lat="37.110930" lon="-113.147230">
        <ele>1434.875</ele>
        <time>2018-12-28T20:39:42Z</time>
      </trkpt>
      <trkpt lat="37.110810" lon="-113.147010">
        <ele>1435.029</ele>
        <time>2018-12-28T20:40:02Z</time>
      </trkpt>
      <trkpt lat="37.110140" lon="-113.145860">
        <ele>1436.738</ele>
        <time>2018-12-28T20:40:22Z</time>
      </trkpt>
      <trkpt lat="37.110030" lon="-113.145670">
        <ele>1436.923</ele>
        <time>2018-12-28T20:40:42Z</time>
      </trkpt>
      <trkpt lat="37.109710" lon="-113.145110">
        <ele>1437.552</ele>
        <time>2018-12-28T20:41:02Z</time>
      </trkpt>
      <trkpt lat="37.109190" lon="-113.144210">
        <ele>1438.153</ele>
        <time>2018-12-28T20:41:22Z</time>
      </trkpt>
      <trkpt lat="37.108330" lon="-113.142740">
        <ele>1438.608</ele>
        <time>2018-12-28T20:41:42Z</time>
      </trkpt>
      <trkpt lat="37.107280" lon="-113.140900">
        <ele>1437.908</ele>
        <time>2018-12-28T20:42:02Z</time>
      </trkpt>
      <trkpt lat="37.103430" lon="-113.134250">
        <ele>1444.018</ele>
        <time>2018-12-28T20:42:22Z</time>
      </trkpt>
      <trkpt lat="37.102610" lon="-113.132830">
        <ele>1445.926</ele>
        <time>2018-12-28T20:42:42Z</time>
      </trkpt>
      <trkpt lat="37.102320" lon="-113.132330">
        <ele>1446.751</ele>
        <time>2018-12-28T20:43:02Z</time>
      </trkpt>
      <trkpt lat="37.102150" lon="-113.132030">
        <ele>1447.152</ele>
        <time>2018-12-28T20:43:22Z</time>
      </trkpt>
      <trkpt lat="37.101950" lon="-113.131700">
        <ele>1447.696</ele>
        <time>2018-12-28T20:43:42Z</time>
      </trkpt>
      <trkpt lat="37.101910" lon="-113.131630">
        <ele>1447.780</ele>
        <time>2018-12-28T20:44:02Z</time>
      </trkpt>
      <trkpt lat="37.101540" lon="-113.131000">
        <ele>1448.619</ele>
        <time>2018-12-28T20:44:22Z</time>
      </trkpt>
      <trkpt lat="37.101390" lon="-113.130750">
        <ele>1449.024</ele>
        <time>2018-12-28T20:44:42Z</time>
      </trkpt>
      <trkpt lat="37.101260" lon="-113.130530">
        <ele>1449.243</ele>
        <time>2018-12-28T20:45:02Z</time>
      </trkpt>
      <trkpt lat="37.100330" lon="-113.128930">
        <ele>1450.264</ele>
        <time>2018-12-28T20:45:22Z</time>
      </trkpt>
      <trkpt lat="37.099900" lon="-113.128180">
        <ele>1451.110</ele>
        <time>2018-12-28T20:45:42Z</time>
      </trkpt>
      <trkpt lat="37.099530" lon="-113.127520">
        <ele>1454.208</ele>
        <time>2018-12-28T20:46:02Z</time>
      </trkpt>
      <trkpt lat="37.099290" lon="-113.127110">
        <ele>1455.857</ele>
        <time>2018-12-28T20:46:22Z</time>
      </trkpt>
      <trkpt lat="37.098990" lon="-113.126590">
        <ele>1457.695</ele>
        <time>2018-12-28T20:46:42Z</time>
      </trkpt>
      <trkpt lat="37.098840" lon="-113.126310">
        <ele>1458.570</ele>
        <time>2018-12-28T20:47:02Z</time>
      </trkpt>
      <trkpt lat="37.098680" lon="-113.126030">
        <ele>1458.231</ele>
        <time>2018-12-28T20:47:22Z</time>
      </trkpt>
      <trkpt lat="37.098430" lon="-113.125600">
        <ele>1457.875</ele>
        <time>2018-12-28T20:47:42Z</time>
      </trkpt>
      <trkpt lat="37.098290" lon="-113.125350">
        <ele>1458.049</ele>
        <time>2018-12-28T20:48:02Z</time>
      </trkpt>
      <trkpt lat="37.097400" lon="-113.123810">
        <ele>1460.818</ele>
        <time>2018-12-28T20:48:22Z</time>
      </trkpt>
      <trkpt lat="37.096670" lon="-113.122560">
        <ele>1459.183</ele>
        <time>2018-12-28T20:48:42Z</time>
      </trkpt>
      <trkpt lat="37.096330" lon="-113.121970">
        <ele>1456.134</ele>
        <time>2018-12-28T20:49:02Z</time>
      </trkpt>
      <trkpt lat="37.096010" lon="-113.121430">
        <ele>1456.155</ele>
        <time>2018-12-28T20:49:22Z</time>
      </trkpt>
      <trkpt lat="37.095360" lon="-113.120290">
        <ele>1457.510</ele>
        <time>2018-12-28T20:49:42Z</time>
      </trkpt>
      <trkpt lat="37.094410" lon="-113.118650">
        <ele>1456.408</ele>
        <time>2018-12-28T20:50:02Z</time>
      </trkpt>
      <trkpt lat="37.094100" lon="-113.118110">
        <ele>1459.526</ele>
        <time>2018-12-28T20:50:22Z</time>
      </trkpt>
      <trkpt lat="37.093890" lon="-113.117770">
        <ele>1461.584</ele>
        <time>2018-12-28T20:50:42Z</time>
      </trkpt>
      <trkpt lat="37.093810" lon="-113.117630">
        <ele>1462.129</ele>
        <time>2018-12-28T20:51:02Z</time>
      </trkpt>
      <trkpt lat="37.093730" lon="-113.117500">
        <ele>1462.110</ele>
        <time>2018-12-28T20:51:22Z</time>
      </trkpt>
      <trkpt lat="37.093660" lon="-113.117390">
        <ele>1462.474</ele>
        <time>2018-12-28T20:51:42Z</time>
      </trkpt>
      <trkpt lat="37.093580" lon="-113.117280">
        <ele>1462.898</ele>
        <time>2018-12-28T20:52:02Z</time>
      </trkpt>
      <trkpt lat="37.093520" lon="-113.117180">
        <ele>1463.277</ele>
        <time>2018-12-28T20:52:22Z</time>
      </trkpt>
      <trkpt lat="37.093420" lon="-113.117040">
        <ele>1463.962</ele>
        <time>2018-12-28T20:52:42Z</time>
      </trkpt>
      <trkpt lat="37.093290" lon="-113.116870">
        <ele>1464.216</ele>
        <time>2018-12-28T20:53:02Z</time>
      </trkpt>
      <trkpt lat="37.093140" lon="-113.116680">
        <ele>1464.576</ele>
        <time>2018-12-28T20:53:22Z</time>
      </trkpt>
      <trkpt lat="37.093050" lon="-113.116570">
        <ele>1464.713</ele>
        <time>2018-12-28T20:53:42Z</time>
      </trkpt>
      <trkpt lat="37.092940" lon="-113.116440">
        <ele>1465.008</ele>
        <time>2018-12-28T20:54:02Z</time>
      </trkpt>
      <trkpt lat="37.092770" lon="-113.116240">
        <ele>1465.394</ele>
        <time>2018-12-28T20:54:22Z</time>
      </trkpt>
      <trkpt lat="37.092480" lon="-113.115950">
        <ele>1466.012</ele>
        <time>2018-12-28T20:54:42Z</time>
      </trkpt>
      <trkpt lat="37.092290" lon="-113.115770">
        <ele>1466.557</ele>
        <time>2018-12-28T20:55:02Z</time>
      </trkpt>
      <trkpt lat="37.092080" lon="-113.115570">
        <ele>1466.818</ele>
        <time>2018-12-28T20:55:22Z</time>
      </trkpt>
      <trkpt lat="37.091830" lon="-113.115360">
        <ele>1466.912</ele>
        <time>2018-12-28T20:55:42Z</time>
      </trkpt>
      <trkpt lat="37.091660" lon="-113.115230">
        <ele>1466.826</ele>
        <time>2018-12-28T20:56:02Z</time>
      </trkpt>
      <trkpt lat="37.091450" lon="-113.115080">
        <ele>1466.795</ele>
        <time>2018-12-28T20:56:22Z</time>
      </trkpt>
      <trkpt lat="37.091370" lon="-113.115020">
        <ele>1466.720</ele>
        <time>2018-12-28T20:56:42Z</time>
      </trkpt>
      <trkpt lat="37.091260" lon="-113.114950">
        <ele>1466.719</ele>
        <time>2018-12-28T20:57:02Z</time>
      </trkpt>
      <trkpt lat="37.091130" lon="-113.114870">
        <ele>1466.709</ele>
        <time>2018-12-28T20:57:22Z</time>
      </trkpt>
      <trkpt lat="37.091010" lon="-113.114800">
        <ele>1466.819</ele>
        <time>2018-12-28T20:57:42Z</time>
      </trkpt>
      <trkpt lat="37.090870" lon="-113.114710">
        <ele>1466.808</ele>
        <time>2018-12-28T20:58:02Z</time>
      </trkpt>
      <trkpt lat="37.090700" lon="-113.114620">
        <ele>1467.094</ele>
        <time>2018-12-28T20:58:22Z</time>
      </trkpt>
      <trkpt lat="37.090330" lon="-113.114430">
        <ele>1467.122</ele>
        <time>2018-12-28T20:58:42Z</time>
      </trkpt>
      <trkpt lat="37.090080" lon="-113.114290">
        <ele>1467.357</ele>
        <time>2018-12-28T20:59:02Z</time>
      </trkpt>
      <trkpt lat="37.089750" lon="-113.114120">
        <ele>1467.828</ele>
        <time>2018-12-28T20:59:22Z</time>
      </trkpt>
      <trkpt lat="37.089480" lon="-113.113980">
        <ele>1468.352</ele>
        <time>2018-12-28T20:59:42Z</time>
      </trkpt>
      <trkpt lat="37.089380" lon="-113.113930">
        <ele>1468.466</ele>
        <time>2018-12-28T21:00:02Z</time>
      </trkpt>
      <trkpt lat="37.089090" lon="-113.113780">
        <ele>1469.075</ele>
        <time>2018-12-28T21:00:22Z</time>
      </trkpt>
      <trkpt lat="37.088800" lon="-113.113630">
        <ele>1469.780</ele>
        <time>2018-12-28T21:00:42Z</time>
      </trkpt>
      <trkpt lat="37.088500" lon="-113.113470">
        <ele>1470.469</ele>
        <time>2018-12-28T21:01:02Z</time>
      </trkpt>
      <trkpt lat="37.088090" lon="-113.113260">
        <ele>1471.404</ele>
        <time>2018-12-28T21:01:22Z</time>
      </trkpt>
      <trkpt lat="37.087650" lon="-113.113030">
        <ele>1472.124</ele>
        <time>2018-12-28T21:01:42Z</time>
      </trkpt>
      <trkpt lat="37.087180" lon="-113.112790">
        <ele>1472.408</ele>
        <time>2018-12-28T21:02:02Z</time>
      </trkpt>
      <trkpt lat="37.086980" lon="-113.112690">
        <ele>1472.579</ele>
        <time>2018-12-28T21:02:22Z</time>
      </trkpt>
      <trkpt lat="37.086570" lon="-113.112480">
        <ele>1472.717</ele>
        <time>2018-12-28T21:02:42Z</time>
      </trkpt>
      <trkpt lat="37.086370" lon="-113.112370">
        <ele>1472.812</ele>
        <time>2018-12-28T21:03:02Z</time>
      </trkpt>
      <trkpt lat="37.085970" lon="-113.112160">
        <ele>1473.163</ele>
        <time>2018-12-28T21:03:22Z</time>
      </trkpt>
      <trkpt lat="37.085500" lon="-113.111920">
        <ele>1473.567</ele>
        <time>2018-12-28T21:03:42Z</time>
      </trkpt>
      <trkpt lat="37.083240" lon="-113.110750">
        <ele>1476.411</ele>
        <time>2018-12-28T21:04:02Z</time>
      </trkpt>
      <trkpt lat="37.081720" lon="-113.109940">
        <ele>1475.960</ele>
        <time>2018-12-28T21:04:22Z</time>
      </trkpt>
      <trkpt lat="37.081100" lon="-113.109620">
        <ele>1477.265</ele>
        <time>2018-12-28T21:04:42Z</time>
      </trkpt>
      <trkpt lat="37.080700" lon="-113.109420">
        <ele>1477.631</ele>
        <time>2018-12-28T21:05:02Z</time>
      </trkpt>
      <trkpt lat="37.080210" lon="-113.109170">
        <ele>1477.861</ele>
        <time>2018-12-28T21:05:22Z</time>
      </trkpt>
      <trkpt lat="37.079780" lon="-113.108940">
        <ele>1477.407</ele>
        <time>2018-12-28T21:05:42Z</time>
      </trkpt>
      <trkpt lat="37.079080" lon="-113.108580">
        <ele>1477.708</ele>
        <time>2018-12-28T21:06:02Z</time>
      </trkpt>
      <trkpt lat="37.078460" lon="-113.108260">
        <ele>1479.256</ele>
        <time>2018-12-28T21:06:22Z</time>
      </trkpt>
      <trkpt lat="37.077320" lon="-113.107660">
        <ele>1482.444</ele>
        <time>2018-12-28T21:06:42Z</time>
      </trkpt>
      <trkpt lat="37.076930" lon="-113.107460">
        <ele>1483.759</ele>
        <time>2018-12-28T21:07:02Z</time>
      </trkpt>
      <trkpt lat="37.076330" lon="-113.107150">
        <ele>1485.560</ele>
        <time>2018-12-28T21:07:22Z</time>
      </trkpt>
      <trkpt lat="37.075640" lon="-113.106790">
        <ele>1487.414</ele>
        <time>2018-12-28T21:07:42Z</time>
      </trkpt>
      <trkpt lat="37.075350" lon="-113.106640">
        <ele>1487.818</ele>
        <time>2018-12-28T21:08:02Z</time>
      </trkpt>
      <trkpt lat="37.073640" lon="-113.105750">
        <ele>1488.317</ele>
        <time>2018-12-28T21:08:22Z</time>
      </trkpt>
      <trkpt lat="37.072580" lon="-113.105200">
        <ele>1490.242</ele>
        <time>2018-12-28T21:08:42Z</time>
      </trkpt>
      <trkpt lat="37.072070" lon="-113.104930">
        <ele>1490.716</ele>
        <time>2018-12-28T21:09:02Z</time>
      </trkpt>
      <trkpt lat="37.071450" lon="-113.104610">
        <ele>1491.276</ele>
        <time>2018-12-28T21:09:22Z</time>
      </trkpt>
      <trkpt lat="37.071050" lon="-113.104400">
        <ele>1491.713</ele>
        <time>2018-12-28T21:09:42Z</time>
      </trkpt>
      <trkpt lat="37.070560" lon="-113.104150">
        <ele>1492.108</ele>
        <time>2018-12-28T21:10:02Z</time>
      </trkpt>
      <trkpt lat="37.070040" lon="-113.103880">
        <ele>1492.464</ele>
        <time>2018-12-28T21:10:22Z</time>
      </trkpt>
      <trkpt lat="37.069620" lon="-113.103660">
        <ele>1492.752</ele>
        <time>2018-12-28T21:10:42Z</time>
      </trkpt>
      <trkpt lat="37.069400" lon="-113.103540">
        <ele>1492.727</ele>
        <time>2018-12-28T21:11:02Z</time>
      </trkpt>
      <trkpt lat="37.069190" lon="-113.103430">
        <ele>1492.878</ele>
        <time>2018-12-28T21:11:22Z</time>
      </trkpt>
      <trkpt lat="37.068580" lon="-113.103120">
        <ele>1493.262</ele>
        <time>2018-12-28T21:11:42Z</time>
      </trkpt>
      <trkpt lat="37.067940" lon="-113.102780">
        <ele>1493.556</ele>
        <time>2018-12-28T21:12:02Z</time>
      </trkpt>
      <trkpt lat="37.067530" lon="-113.102570">
        <ele>1493.775</ele>
        <time>2018-12-28T21:12:22Z</time>
      </trkpt>
      <trkpt lat="37.067120" lon="-113.102360">
        <ele>1493.810</ele>
        <time>2018-12-28T21:12:42Z</time>
      </trkpt>
      <trkpt lat="37.066930" lon="-113.102260">
        <ele>1493.994</ele>
        <time>2018-12-28T21:13:02Z</time>
      </trkpt>
      <trkpt lat="37.066400" lon="-113.101980">
        <ele>1494.157</ele>
        <time>2018-12-28T21:13:22Z</time>
      </trkpt>
      <trkpt lat="37.066090" lon="-113.101820">
        <ele>1494.522</ele>
        <time>2018-12-28T21:13:42Z</time>
      </trkpt>
      <trkpt lat="37.065880" lon="-113.101710">
        <ele>1494.708</ele>
        <time>2018-12-28T21:14:02Z</time>
      </trkpt>
      <trkpt lat="37.065490" lon="-113.101510">
        <ele>1495.282</ele>
        <time>2018-12-28T21:14:22Z</time>
      </trkpt>
      <trkpt lat="37.065190" lon="-113.101350">
        <ele>1495.630</ele>
        <time>2018-12-28T21:14:42Z</time>
      </trkpt>
      <trkpt lat="37.064890" lon="-113.101200">
        <ele>1496.235</ele>
        <time>2018-12-28T21:15:02Z</time>
      </trkpt>
      <trkpt lat="37.064620" lon="-113.101060">
        <ele>1496.516</ele>
        <time>2018-12-28T21:15:22Z</time>
      </trkpt>
      <trkpt lat="37.064210" lon="-113.100850">
        <ele>1496.660</ele>
        <time>2018-12-28T21:15:42Z</time>
      </trkpt>
      <trkpt lat="37.063750" lon="-113.100610">
        <ele>1497.254</ele>
        <time>2018-12-28T21:16:02Z</time>
      </trkpt>
      <trkpt lat="37.063350" lon="-113.100410">
        <ele>1497.833</ele>
        <time>2018-12-28T21:16:22Z</time>
      </trkpt>
      <trkpt lat="37.062960" lon="-113.100200">
        <ele>1498.618</ele>
        <time>2018-12-28T21:16:42Z</time>
      </trkpt>
      <trkpt lat="37.062450" lon="-113.099930">
        <ele>1500.162</ele>
        <time>2018-12-28T21:17:02Z</time>
      </trkpt>
      <trkpt lat="37.061850" lon="-113.099630">
        <ele>1501.983</ele>
        <time>2018-12-28T21:17:22Z</time>
      </trkpt>
      <trkpt lat="37.061320" lon="-113.099350">
        <ele>1502.411</ele>
        <time>2018-12-28T21:17:42Z</time>
      </trkpt>
      <trkpt lat="37.060990" lon="-113.099180">
        <ele>1502.108</ele>
        <time>2018-12-28T21:18:02Z</time>
      </trkpt>
      <trkpt lat="37.060830" lon="-113.099100">
        <ele>1501.699</ele>
        <time>2018-12-28T21:18:22Z</time>
      </trkpt>
      <trkpt lat="37.060620" lon="-113.098990">
        <ele>1501.047</ele>
        <time>2018-12-28T21:18:42Z</time>
      </trkpt>
      <trkpt lat="37.060170" lon="-113.098760">
        <ele>1500.272</ele>
        <time>2018-12-28T21:19:02Z</time>
      </trkpt>
      <trkpt lat="37.059740" lon="-113.098530">
        <ele>1501.073</ele>
        <time>2018-12-28T21:19:22Z</time>
      </trkpt>
      <trkpt lat="37.059400" lon="-113.098350">
        <ele>1502.017</ele>
        <time>2018-12-28T21:19:42Z</time>
      </trkpt>
      <trkpt lat="37.058900" lon="-113.098070">
        <ele>1503.371</ele>
        <time>2018-12-28T21:20:02Z</time>
      </trkpt>
      <trkpt lat="37.058630" lon="-113.097910">
        <ele>1503.550</ele>
        <time>2018-12-28T21:20:22Z</time>
      </trkpt>
      <trkpt lat="37.058370" lon="-113.097750">
        <ele>1503.635</ele>
        <time>2018-12-28T21:20:42Z</time>
      </trkpt>
      <trkpt lat="37.058010" lon="-113.097540">
        <ele>1503.623</ele>
        <time>2018-12-28T21:21:02Z</time>
      </trkpt>
      <trkpt lat="37.057540" lon="-113.097250">
        <ele>1503.683</ele>
        <time>2018-12-28T21:21:22Z</time>
      </trkpt>
      <trkpt lat="37.057290" lon="-113.097090">
        <ele>1503.711</ele>
        <time>2018-12-28T21:21:42Z</time>
      </trkpt>
      <trkpt lat="37.057150" lon="-113.097000">
        <ele>1503.708</ele>
        <time>2018-12-28T21:22:02Z</time>
      </trkpt>
      <trkpt lat="37.057010" lon="-113.096910">
        <ele>1503.795</ele>
        <time>2018-12-28T21:22:22Z</time>
      </trkpt>
      <trkpt lat="37.056870" lon="-113.096820">
        <ele>1503.813</ele>
        <time>2018-12-28T21:22:42Z</time>
      </trkpt>
      <trkpt lat="37.056690" lon="-113.096710">
        <ele>1504.078</ele>
        <time>2018-12-28T21:23:02Z</time>
      </trkpt>
      <trkpt lat="37.056530" lon="-113.096600">
        <ele>1504.329</ele>
        <time>2018-12-28T21:23:22Z</time>
      </trkpt>
      <trkpt lat="37.056290" lon="-113.096430">
        <ele>1504.663</ele>
        <time>2018-12-28T21:23:42Z</time>
      </trkpt>
      <trkpt lat="37.056080" lon="-113.096290">
        <ele>1504.867</ele>
        <time>2018-12-28T21:24:02Z</time>
      </trkpt>
      <trkpt lat="37.055590" lon="-113.095940">
        <ele>1506.136</ele>
        <time>2018-12-28T21:24:22Z</time>
      </trkpt>
      <trkpt lat="37.055200" lon="-113.095660">
        <ele>1507.281</ele>
        <time>2018-12-28T21:24:42Z</time>
      </trkpt>
      <trkpt lat="37.054760" lon="-113.095330">
        <ele>1506.717</ele>
        <time>2018-12-28T21:25:02Z</time>
      </trkpt>
      <trkpt lat="37.054430" lon="-113.095080">
        <ele>1505.187</ele>
        <time>2018-12-28T21:25:22Z</time>
      </trkpt>
      <trkpt lat="37.054300" lon="-113.094980">
        <ele>1504.315</ele>
        <time>2018-12-28T21:25:42Z</time>
      </trkpt>
      <trkpt lat="37.054110" lon="-113.094840">
        <ele>1502.908</ele>
        <time>2018-12-28T21:26:02Z</time>
      </trkpt>
      <trkpt lat="37.053950" lon="-113.094700">
        <ele>1501.714</ele>
        <time>2018-12-28T21:26:22Z</time>
      </trkpt>
      <trkpt lat="37.053770" lon="-113.094560">
        <ele>1500.892</ele>
        <time>2018-12-28T21:26:42Z</time>
      </trkpt>
      <trkpt lat="37.053590" lon="-113.094420">
        <ele>1500.117</ele>
        <time>2018-12-28T21:27:02Z</time>
      </trkpt>
      <trkpt lat="37.053340" lon="-113.094210">
        <ele>1499.758</ele>
        <time>2018-12-28T21:27:22Z</time>
      </trkpt>
      <trkpt lat="37.053130" lon="-113.094030">
        <ele>1499.952</ele>
        <time>2018-12-28T21:27:42Z</time>
      </trkpt>
      <trkpt lat="37.052890" lon="-113.093820">
        <ele>1500.246</ele>
        <time>2018-12-28T21:28:02Z</time>
      </trkpt>
      <trkpt lat="37.052530" lon="-113.093500">
        <ele>1500.275</ele>
        <time>2018-12-28T21:28:22Z</time>
      </trkpt>
      <trkpt lat="37.052230" lon="-113.093250">
        <ele>1499.610</ele>
        <time>2018-12-28T21:28:42Z</time>
      </trkpt>
      <trkpt lat="37.051930" lon="-113.092980">
        <ele>1499.612</ele>
        <time>2018-12-28T21:29:02Z</time>
      </trkpt>
      <trkpt lat="37.051560" lon="-113.092640">
        <ele>1500.332</ele>
        <time>2018-12-28T21:29:22Z</time>
      </trkpt>
      <trkpt lat="37.051250" lon="-113.092350">
        <ele>1499.805</ele>
        <time>2018-12-28T21:29:42Z</time>
      </trkpt>
      <trkpt lat="37.051110" lon="-113.092220">
        <ele>1497.608</ele>
        <time>2018-12-28T21:30:02Z</time>
      </trkpt>
      <trkpt lat="37.050850" lon="-113.091960">
        <ele>1492.054</ele>
        <time>2018-12-28T21:30:22Z</time>
      </trkpt>
      <trkpt lat="37.050730" lon="-113.091840">
        <ele>1489.822</ele>
        <time>2018-12-28T21:30:42Z</time>
      </trkpt>
      <trkpt lat="37.050190" lon="-113.091280">
        <ele>1488.427</ele>
        <time>2018-12-28T21:31:02Z</time>
      </trkpt>
      <trkpt lat="37.049880" lon="-113.090970">
        <ele>1488.318</ele>
        <time>2018-12-28T21:31:22Z</time>
      </trkpt>
      <trkpt lat="37.049730" lon="-113.090810">
        <ele>1488.212</ele>
        <time>2018-12-28T21:31:42Z</time>
      </trkpt>
      <trkpt lat="37.049370" lon="-113.090410">
        <ele>1487.416</ele>
        <time>2018-12-28T21:32:02Z</time>
      </trkpt>
      <trkpt lat="37.049110" lon="-113.090140">
        <ele>1486.645</ele>
        <time>2018-12-28T21:32:22Z</time>
      </trkpt>
      <trkpt lat="37.048870" lon="-113.089880">
        <ele>1486.020</ele>
        <time>2018-12-28T21:32:42Z</time>
      </trkpt>
      <trkpt lat="37.048470" lon="-113.089410">
        <ele>1485.513</ele>
        <time>2018-12-28T21:33:02Z</time>
      </trkpt>
      <trkpt lat="37.048340" lon="-113.089260">
        <ele>1485.343</ele>
        <time>2018-12-28T21:33:22Z</time>
      </trkpt>
      <trkpt lat="37.048230" lon="-113.089150">
        <ele>1485.207</ele>
        <time>2018-12-28T21:33:42Z</time>
      </trkpt>
      <trkpt lat="37.047990" lon="-113.088870">
        <ele>1485.008</ele>
        <time>2018-12-28T21:34:02Z</time>
      </trkpt>
      <trkpt lat="37.047830" lon="-113.088670">
        <ele>1484.764</ele>
        <time>2018-12-28T21:34:22Z</time>
      </trkpt>
      <trkpt lat="37.047590" lon="-113.088380">
        <ele>1484.392</ele>
        <time>2018-12-28T21:34:42Z</time>
      </trkpt>
      <trkpt lat="37.047350" lon="-113.088080">
        <ele>1483.847</ele>
        <time>2018-12-28T21:35:02Z</time>
      </trkpt>
      <trkpt lat="37.047130" lon="-113.087790">
        <ele>1483.378</ele>
        <time>2018-12-28T21:35:22Z</time>
      </trkpt>
      <trkpt lat="37.046770" lon="-113.087330">
        <ele>1482.552</ele>
        <time>2018-12-28T21:35:42Z</time>
      </trkpt>
      <trkpt lat="37.046670" lon="-113.087200">
        <ele>1482.336</ele>
        <time>2018-12-28T21:36:02Z</time>
      </trkpt>
      <trkpt lat="37.046580" lon="-113.087090">
        <ele>1482.145</ele>
        <time>2018-12-28T21:36:22Z</time>
      </trkpt>
      <trkpt lat="37.046480" lon="-113.086950">
        <ele>1481.940</ele>
        <time>2018-12-28T21:36:42Z</time>
      </trkpt>
      <trkpt lat="37.046370" lon="-113.086800">
        <ele>1481.651</ele>
        <time>2018-12-28T21:37:02Z</time>
      </trkpt>
      <trkpt lat="37.046240" lon="-113.086630">
        <ele>1481.301</ele>
        <time>2018-12-28T21:37:22Z</time>
      </trkpt>
      <trkpt lat="37.046100" lon="-113.086440">
        <ele>1481.011</ele>
        <time>2018-12-28T21:37:42Z</time>
      </trkpt>
      <trkpt lat="37.045940" lon="-113.086210">
        <ele>1480.608</ele>
        <time>2018-12-28T21:38:02Z</time>
      </trkpt>
      <trkpt lat="37.045720" lon="-113.085900">
        <ele>1480.418</ele>
        <time>2018-12-28T21:38:22Z</time>
      </trkpt>
      <trkpt lat="37.045520" lon="-113.085620">
        <ele>1480.346</ele>
        <time>2018-12-28T21:38:42Z</time>
      </trkpt>
      <trkpt lat="37.045360" lon="-113.085390">
        <ele>1480.361</ele>
        <time>2018-12-28T21:39:02Z</time>
      </trkpt>
      <trkpt lat="37.045060" lon="-113.084960">
        <ele>1480.182</ele>
        <time>2018-12-28T21:39:22Z</time>
      </trkpt>
      <trkpt lat="37.044930" lon="-113.084760">
        <ele>1480.246</ele>
        <time>2018-12-28T21:39:42Z</time>
      </trkpt>
      <trkpt lat="37.044790" lon="-113.084540">
        <ele>1480.240</ele>
        <time>2018-12-28T21:40:02Z</time>
      </trkpt>
      <trkpt lat="37.044430" lon="-113.083990">
        <ele>1480.029</ele>
        <time>2018-12-28T21:40:22Z</time>
      </trkpt>
      <trkpt lat="37.044230" lon="-113.083660">
        <ele>1479.874</ele>
        <time>2018-12-28T21:40:42Z</time>
      </trkpt>
      <trkpt lat="37.044130" lon="-113.083520">
        <ele>1479.797</ele>
        <time>2018-12-28T21:41:02Z</time>
      </trkpt>
      <trkpt lat="37.044070" lon="-113.083420">
        <ele>1479.623</ele>
        <time>2018-12-28T21:41:22Z</time>
      </trkpt>
      <trkpt lat="37.044020" lon="-113.083340">
        <ele>1479.625</ele>
        <time>2018-12-28T21:41:42Z</time>
      </trkpt>
      <trkpt lat="37.043920" lon="-113.083170">
        <ele>1479.408</ele>
        <time>2018-12-28T21:42:02Z</time>
      </trkpt>
      <trkpt lat="37.043830" lon="-113.083010">
        <ele>1479.412</ele>
        <time>2018-12-28T21:42:22Z</time>
      </trkpt>
      <trkpt lat="37.043740" lon="-113.082870">
        <ele>1479.360</ele>
        <time>2018-12-28T21:42:42Z</time>
      </trkpt>
      <trkpt lat="37.043530" lon="-113.082520">
        <ele>1479.125</ele>
        <time>2018-12-28T21:43:02Z</time>
      </trkpt>
      <trkpt lat="37.043330" lon="-113.082190">
        <ele>1479.036</ele>
        <time>2018-12-28T21:43:22Z</time>
      </trkpt>
      <trkpt lat="37.043130" lon="-113.081830">
        <ele>1478.980</ele>
        <time>2018-12-28T21:43:42Z</time>
      </trkpt>
      <trkpt lat="37.042920" lon="-113.081460">
        <ele>1478.814</ele>
        <time>2018-12-28T21:44:02Z</time>
      </trkpt>
      <trkpt lat="37.042760" lon="-113.081160">
        <ele>1478.793</ele>
        <time>2018-12-28T21:44:22Z</time>
      </trkpt>
      <trkpt lat="37.042610" lon="-113.080900">
        <ele>1478.628</ele>
        <time>2018-12-28T21:44:42Z</time>
      </trkpt>
      <trkpt lat="37.042510" lon="-113.080710">
        <ele>1478.647</ele>
        <time>2018-12-28T21:45:02Z</time>
      </trkpt>
      <trkpt lat="37.042380" lon="-113.080460">
        <ele>1478.529</ele>
        <time>2018-12-28T21:45:22Z</time>
      </trkpt>
      <trkpt lat="37.042240" lon="-113.080190">
        <ele>1478.421</ele>
        <time>2018-12-28T21:45:42Z</time>
      </trkpt>
      <trkpt lat="37.042100" lon="-113.079920">
        <ele>1478.408</ele>
        <time>2018-12-28T21:46:02Z</time>
      </trkpt>
      <trkpt lat="37.041920" lon="-113.079570">
        <ele>1478.387</ele>
        <time>2018-12-28T21:46:22Z</time>
      </trkpt>
      <trkpt lat="37.041710" lon="-113.079150">
        <ele>1478.385</ele>
        <time>2018-12-28T21:46:42Z</time>
      </trkpt>
      <trkpt lat="37.041530" lon="-113.078780">
        <ele>1478.450</ele>
        <time>2018-12-28T21:47:02Z</time>
      </trkpt>
      <trkpt lat="37.040300" lon="-113.076280">
        <ele>1476.721</ele>
        <time>2018-12-28T21:47:22Z</time>
      </trkpt>
      <trkpt lat="37.037780" lon="-113.071130">
        <ele>1478.815</ele>
        <time>2018-12-28T21:47:42Z</time>
      </trkpt>
      <trkpt lat="37.037480" lon="-113.070510">
        <ele>1479.459</ele>
        <time>2018-12-28T21:48:02Z</time>
      </trkpt>
      <trkpt lat="37.037420" lon="-113.070390">
        <ele>1479.528</ele>
        <time>2018-12-28T21:48:22Z</time>
      </trkpt>
      <trkpt lat="37.036090" lon="-113.067690">
        <ele>1475.813</ele>
        <time>2018-12-28T21:48:42Z</time>
      </trkpt>
      <trkpt lat="37.035970" lon="-113.067420">
        <ele>1476.255</ele>
        <time>2018-12-28T21:49:02Z</time>
      </trkpt>
      <trkpt lat="37.032350" lon="-113.060050">
        <ele>1476.407</ele>
        <time>2018-12-28T21:49:22Z</time>
      </trkpt>
      <trkpt lat="37.030920" lon="-113.057120">
        <ele>1484.117</ele>
        <time>2018-12-28T21:49:42Z</time>
      </trkpt>
      <trkpt lat="37.030580" lon="-113.056420">
        <ele>1486.108</ele>
        <time>2018-12-28T21:50:02Z</time>
      </trkpt>
      <trkpt lat="37.030280" lon="-113.055810">
        <ele>1488.168</ele>
        <time>2018-12-28T21:50:22Z</time>
      </trkpt>
      <trkpt lat="37.030040" lon="-113.055330">
        <ele>1488.426</ele>
        <time>2018-12-28T21:50:42Z</time>
      </trkpt>
      <trkpt lat="37.028970" lon="-113.053140">
        <ele>1489.821</ele>
        <time>2018-12-28T21:51:02Z</time>
      </trkpt>
      <trkpt lat="37.027340" lon="-113.049810">
        <ele>1492.832</ele>
        <time>2018-12-28T21:51:22Z</time>
      </trkpt>
      <trkpt lat="37.026070" lon="-113.047220">
        <ele>1495.956</ele>
        <time>2018-12-28T21:51:42Z</time>
      </trkpt>
      <trkpt lat="37.024840" lon="-113.044700">
        <ele>1496.330</ele>
        <time>2018-12-28T21:52:02Z</time>
      </trkpt>
      <trkpt lat="37.024360" lon="-113.043730">
        <ele>1498.079</ele>
        <time>2018-12-28T21:52:22Z</time>
      </trkpt>
      <trkpt lat="37.023430" lon="-113.041830">
        <ele>1507.024</ele>
        <time>2018-12-28T21:52:42Z</time>
      </trkpt>
      <trkpt lat="37.022890" lon="-113.040740">
        <ele>1511.711</ele>
        <time>2018-12-28T21:53:02Z</time>
      </trkpt>
      <trkpt lat="37.022290" lon="-113.039510">
        <ele>1512.721</ele>
        <time>2018-12-28T21:53:22Z</time>
      </trkpt>
      <trkpt lat="37.021890" lon="-113.038700">
        <ele>1512.703</ele>
        <time>2018-12-28T21:53:42Z</time>
      </trkpt>
      <trkpt lat="37.021750" lon="-113.038400">
        <ele>1512.808</ele>
        <time>2018-12-28T21:54:02Z</time>
      </trkpt>
      <trkpt lat="37.021640" lon="-113.038180">
        <ele>1512.914</ele>
        <time>2018-12-28T21:54:22Z</time>
      </trkpt>
      <trkpt lat="37.021360" lon="-113.037620">
        <ele>1514.822</ele>
        <time>2018-12-28T21:54:42Z</time>
      </trkpt>
      <trkpt lat="37.021190" lon="-113.037260">
        <ele>1516.777</ele>
        <time>2018-12-28T21:55:02Z</time>
      </trkpt>
      <trkpt lat="37.021060" lon="-113.036990">
        <ele>1518.068</ele>
        <time>2018-12-28T21:55:22Z</time>
      </trkpt>
      <trkpt lat="37.020780" lon="-113.036430">
        <ele>1521.082</ele>
        <time>2018-12-28T21:55:42Z</time>
      </trkpt>
      <trkpt lat="37.020490" lon="-113.035830">
        <ele>1523.796</ele>
        <time>2018-12-28T21:56:02Z</time>
      </trkpt>
      <trkpt lat="37.019630" lon="-113.034070">
        <ele>1524.665</ele>
        <time>2018-12-28T21:56:22Z</time>
      </trkpt>
      <trkpt lat="37.019150" lon="-113.033100">
        <ele>1514.380</ele>
        <time>2018-12-28T21:56:42Z</time>
      </trkpt>
      <trkpt lat="37.018270" lon="-113.031310">
        <ele>1512.772</ele>
        <time>2018-12-28T21:57:02Z</time>
      </trkpt>
      <trkpt lat="37.017570" lon="-113.029870">
        <ele>1512.713</ele>
        <time>2018-12-28T21:57:22Z</time>
      </trkpt>
      <trkpt lat="37.017320" lon="-113.029370">
        <ele>1512.814</ele>
        <time>2018-12-28T21:57:42Z</time>
      </trkpt>
      <trkpt lat="37.013280" lon="-113.021120">
        <ele>1516.708</ele>
        <time>2018-12-28T21:58:02Z</time>
      </trkpt>
      <trkpt lat="37.012370" lon="-113.019270">
        <ele>1521.490</ele>
        <time>2018-12-28T21:58:22Z</time>
      </trkpt>
      <trkpt lat="37.012040" lon="-113.018610">
        <ele>1523.618</ele>
        <time>2018-12-28T21:58:42Z</time>
      </trkpt>
      <trkpt lat="37.011810" lon="-113.018130">
        <ele>1525.363</ele>
        <time>2018-12-28T21:59:02Z</time>
      </trkpt>
      <trkpt lat="37.010840" lon="-113.016140">
        <ele>1525.644</ele>
        <time>2018-12-28T21:59:22Z</time>
      </trkpt>
      <trkpt lat="37.010470" lon="-113.015400">
        <ele>1527.028</ele>
        <time>2018-12-28T21:59:42Z</time>
      </trkpt>
      <trkpt lat="37.009210" lon="-113.012830">
        <ele>1537.072</ele>
        <time>2018-12-28T22:00:02Z</time>
      </trkpt>
      <trkpt lat="37.008340" lon="-113.011070">
        <ele>1538.051</ele>
        <time>2018-12-28T22:00:22Z</time>
      </trkpt>
      <trkpt lat="37.007460" lon="-113.009280">
        <ele>1539.996</ele>
        <time>2018-12-28T22:00:42Z</time>
      </trkpt>
      <trkpt lat="37.006990" lon="-113.008300">
        <ele>1538.213</ele>
        <time>2018-12-28T22:01:02Z</time>
      </trkpt>
      <trkpt lat="37.006520" lon="-113.007360">
        <ele>1539.943</ele>
        <time>2018-12-28T22:01:22Z</time>
      </trkpt>
      <trkpt lat="37.006110" lon="-113.006500">
        <ele>1541.907</ele>
        <time>2018-12-28T22:01:42Z</time>
      </trkpt>
      <trkpt lat="37.005560" lon="-113.005390">
        <ele>1544.108</ele>
        <time>2018-12-28T22:02:02Z</time>
      </trkpt>
      <trkpt lat="37.005530" lon="-113.005340">
        <ele>1544.294</ele>
        <time>2018-12-28T22:02:22Z</time>
      </trkpt>
      <trkpt lat="37.005300" lon="-113.004890">
        <ele>1544.782</ele>
        <time>2018-12-28T22:02:42Z</time>
      </trkpt>
      <trkpt lat="37.005150" lon="-113.004620">
        <ele>1544.897</ele>
        <time>2018-12-28T22:03:02Z</time>
      </trkpt>
      <trkpt lat="37.004960" lon="-113.004290">
        <ele>1545.228</ele>
        <time>2018-12-28T22:03:22Z</time>
      </trkpt>
      <trkpt lat="37.004810" lon="-113.004020">
        <ele>1545.592</ele>
        <time>2018-12-28T22:03:42Z</time>
      </trkpt>
      <trkpt lat="37.004660" lon="-113.003790">
        <ele>1545.826</ele>
        <time>2018-12-28T22:04:02Z</time>
      </trkpt>
      <trkpt lat="37.004520" lon="-113.003560">
        <ele>1546.295</ele>
        <time>2018-12-28T22:04:22Z</time>
      </trkpt>
      <trkpt lat="37.004330" lon="-113.003280">
        <ele>1546.820</ele>
        <time>2018-12-28T22:04:42Z</time>
      </trkpt>
      <trkpt lat="37.004110" lon="-113.002950">
        <ele>1547.568</ele>
        <time>2018-12-28T22:05:02Z</time>
      </trkpt>
      <trkpt lat="37.003740" lon="-113.002430">
        <ele>1548.242</ele>
        <time>2018-12-28T22:05:22Z</time>
      </trkpt>
      <trkpt lat="37.003650" lon="-113.002300">
        <ele>1548.426</ele>
        <time>2018-12-28T22:05:42Z</time>
      </trkpt>
      <trkpt lat="37.003640" lon="-113.002290">
        <ele>1548.408</ele>
        <time>2018-12-28T22:06:02Z</time>
      </trkpt>
      <trkpt lat="37.003510" lon="-113.002100">
        <ele>1548.529</ele>
        <time>2018-12-28T22:06:22Z</time>
      </trkpt>
      <trkpt lat="37.003330" lon="-113.001880">
        <ele>1548.977</ele>
        <time>2018-12-28T22:06:42Z</time>
      </trkpt>
      <trkpt lat="37.002730" lon="-113.001180">
        <ele>1549.552</ele>
        <time>2018-12-28T22:07:02Z</time>
      </trkpt>
      <trkpt lat="37.002600" lon="-113.001040">
        <ele>1548.933</ele>
        <time>2018-12-28T22:07:22Z</time>
      </trkpt>
      <trkpt lat="37.002480" lon="-113.000910">
        <ele>1548.517</ele>
        <time>2018-12-28T22:07:42Z</time>
      </trkpt>
      <trkpt lat="37.002380" lon="-113.000800">
        <ele>1548.121</ele>
        <time>2018-12-28T22:08:02Z</time>
      </trkpt>
      <trkpt lat="37.002270" lon="-113.000690">
        <ele>1547.740</ele>
        <time>2018-12-28T22:08:22Z</time>
      </trkpt>
      <trkpt lat="37.002130" lon="-113.000550">
        <ele>1547.295</ele>
        <time>2018-12-28T22:08:42Z</time>
      </trkpt>
      <trkpt lat="37.001880" lon="-113.000290">
        <ele>1546.522</ele>
        <time>2018-12-28T22:09:02Z</time>
      </trkpt>
      <trkpt lat="37.001690" lon="-113.000110">
        <ele>1546.062</ele>
        <time>2018-12-28T22:09:22Z</time>
      </trkpt>
      <trkpt lat="37.001520" lon="-112.999960">
        <ele>1545.408</ele>
        <time>2018-12-28T22:09:42Z</time>
      </trkpt>
      <trkpt lat="37.001390" lon="-112.999850">
        <ele>1545.108</ele>
        <time>2018-12-28T22:10:02Z</time>
      </trkpt>
      <trkpt lat="37.001310" lon="-112.999770">
        <ele>1544.945</ele>
        <time>2018-12-28T22:10:22Z</time>
      </trkpt>
      <trkpt lat="37.001230" lon="-112.999700">
        <ele>1544.763</ele>
        <time>2018-12-28T22:10:42Z</time>
      </trkpt>
      <trkpt lat="37.001140" lon="-112.999620">
        <ele>1544.678</ele>
        <time>2018-12-28T22:11:02Z</time>
      </trkpt>
      <trkpt lat="37.001050" lon="-112.999550">
        <ele>1544.459</ele>
        <time>2018-12-28T22:11:22Z</time>
      </trkpt>
      <trkpt lat="37.000950" lon="-112.999460">
        <ele>1544.443</ele>
        <time>2018-12-28T22:11:42Z</time>
      </trkpt>
      <trkpt lat="37.000930" lon="-112.999440">
        <ele>1544.437</ele>
        <time>2018-12-28T22:12:02Z</time>
      </trkpt>
      <trkpt lat="37.000820" lon="-112.999350">
        <ele>1544.296</ele>
        <time>2018-12-28T22:12:22Z</time>
      </trkpt>
      <trkpt lat="37.000250" lon="-112.998890">
        <ele>1543.471</ele>
        <time>2018-12-28T22:12:42Z</time>
      </trkpt>
      <trkpt lat="37.000253" lon="-112.998893">
        <ele>1543.419</ele>
        <time>2018-12-28T22:13:02Z</time>
      </trkpt>
      <trkpt lat="36.999300" lon="-112.998130">
        <ele>1541.109</ele>
        <time>2018-12-28T22:13:22Z</time>
      </trkpt>
      <trkpt lat="36.998810" lon="-112.997740">
        <ele>1540.219</ele>
        <time>2018-12-28T22:13:42Z</time>
      </trkpt>
      <trkpt lat="36.997950" lon="-112.997050">
        <ele>1539.008</ele>
        <time>2018-12-28T22:14:02Z</time>
      </trkpt>
      <trkpt lat="36.997260" lon="-112.996500">
        <ele>1536.854</ele>
        <time>2018-12-28T22:14:22Z</time>
      </trkpt>
      <trkpt lat="36.996570" lon="-112.995930">
        <ele>1531.642</ele>
        <time>2018-12-28T22:14:42Z</time>
      </trkpt>
      <trkpt lat="36.995270" lon="-112.994870">
        <ele>1527.827</ele>
        <time>2018-12-28T22:15:02Z</time>
      </trkpt>
      <trkpt lat="36.993960" lon="-112.993820">
        <ele>1522.878</ele>
        <time>2018-12-28T22:15:22Z</time>
      </trkpt>
      <trkpt lat="36.992540" lon="-112.992690">
        <ele>1519.832</ele>
        <time>2018-12-28T22:15:42Z</time>
      </trkpt>
      <trkpt lat="36.991440" lon="-112.991810">
        <ele>1516.786</ele>
        <time>2018-12-28T22:16:02Z</time>
      </trkpt>
      <trkpt lat="36.990850" lon="-112.991340">
        <ele>1515.085</ele>
        <time>2018-12-28T22:16:22Z</time>
      </trkpt>
      <trkpt lat="36.990450" lon="-112.991010">
        <ele>1514.410</ele>
        <time>2018-12-28T22:16:42Z</time>
      </trkpt>
      <trkpt lat="36.989850" lon="-112.990540">
        <ele>1513.662</ele>
        <time>2018-12-28T22:17:02Z</time>
      </trkpt>
      <trkpt lat="36.988280" lon="-112.989280">
        <ele>1506.283</ele>
        <time>2018-12-28T22:17:22Z</time>
      </trkpt>
      <trkpt lat="36.986890" lon="-112.988160">
        <ele>1507.711</ele>
        <time>2018-12-28T22:17:42Z</time>
      </trkpt>
      <trkpt lat="36.983660" lon="-112.985570">
        <ele>1507.808</ele>
        <time>2018-12-28T22:18:02Z</time>
      </trkpt>
      <trkpt lat="36.983290" lon="-112.985270">
        <ele>1508.119</ele>
        <time>2018-12-28T22:18:22Z</time>
      </trkpt>
      <trkpt lat="36.982880" lon="-112.984950">
        <ele>1508.577</ele>
        <time>2018-12-28T22:18:42Z</time>
      </trkpt>
      <trkpt lat="36.982790" lon="-112.984870">
        <ele>1508.792</ele>
        <time>2018-12-28T22:19:02Z</time>
      </trkpt>
      <trkpt lat="36.982240" lon="-112.984430">
        <ele>1509.993</ele>
        <time>2018-12-28T22:19:22Z</time>
      </trkpt>
      <trkpt lat="36.981340" lon="-112.983700">
        <ele>1512.357</ele>
        <time>2018-12-28T22:19:42Z</time>
      </trkpt>
      <trkpt lat="36.980570" lon="-112.983080">
        <ele>1512.711</ele>
        <time>2018-12-28T22:20:02Z</time>
      </trkpt>
      <trkpt lat="36.978310" lon="-112.981270">
        <ele>1514.950</ele>
        <time>2018-12-28T22:20:22Z</time>
      </trkpt>
      <trkpt lat="36.977210" lon="-112.980380">
        <ele>1517.825</ele>
        <time>2018-12-28T22:20:42Z</time>
      </trkpt>
      <trkpt lat="36.976940" lon="-112.980170">
        <ele>1518.693</ele>
        <time>2018-12-28T22:21:02Z</time>
      </trkpt>
      <trkpt lat="36.976640" lon="-112.979930">
        <ele>1518.865</ele>
        <time>2018-12-28T22:21:22Z</time>
      </trkpt>
      <trkpt lat="36.976220" lon="-112.979590">
        <ele>1518.821</ele>
        <time>2018-12-28T22:21:42Z</time>
      </trkpt>
      <trkpt lat="36.975670" lon="-112.979150">
        <ele>1519.208</ele>
        <time>2018-12-28T22:22:02Z</time>
      </trkpt>
      <trkpt lat="36.975600" lon="-112.979090">
        <ele>1519.532</ele>
        <time>2018-12-28T22:22:22Z</time>
      </trkpt>
      <trkpt lat="36.973160" lon="-112.977140">
        <ele>1525.840</ele>
        <time>2018-12-28T22:22:42Z</time>
      </trkpt>
      <trkpt lat="36.971890" lon="-112.976110">
        <ele>1530.775</ele>
        <time>2018-12-28T22:23:02Z</time>
      </trkpt>
      <trkpt lat="36.971350" lon="-112.975670">
        <ele>1531.716</ele>
        <time>2018-12-28T22:23:22Z</time>
      </trkpt>
      <trkpt lat="36.970620" lon="-112.975070">
        <ele>1536.480</ele>
        <time>2018-12-28T22:23:42Z</time>
      </trkpt>
      <trkpt lat="36.969700" lon="-112.974320">
        <ele>1537.624</ele>
        <time>2018-12-28T22:24:02Z</time>
      </trkpt>
      <trkpt lat="36.969400" lon="-112.974080">
        <ele>1538.823</ele>
        <time>2018-12-28T22:24:22Z</time>
      </trkpt>
      <trkpt lat="36.969210" lon="-112.973930">
        <ele>1539.888</ele>
        <time>2018-12-28T22:24:42Z</time>
      </trkpt>
      <trkpt lat="36.966080" lon="-112.971410">
        <ele>1537.041</ele>
        <time>2018-12-28T22:25:02Z</time>
      </trkpt>
      <trkpt lat="36.963630" lon="-112.969460">
        <ele>1533.281</ele>
        <time>2018-12-28T22:25:22Z</time>
      </trkpt>
      <trkpt lat="36.963060" lon="-112.969000">
        <ele>1534.809</ele>
        <time>2018-12-28T22:25:42Z</time>
      </trkpt>
      <trkpt lat="36.962760" lon="-112.968770">
        <ele>1534.808</ele>
        <time>2018-12-28T22:26:02Z</time>
      </trkpt>
      <trkpt lat="36.962040" lon="-112.968170">
        <ele>1534.347</ele>
        <time>2018-12-28T22:26:22Z</time>
      </trkpt>
      <trkpt lat="36.961520" lon="-112.967770">
        <ele>1533.675</ele>
        <time>2018-12-28T22:26:42Z</time>
      </trkpt>
      <trkpt lat="36.960660" lon="-112.967070">
        <ele>1534.130</ele>
        <time>2018-12-28T22:27:02Z</time>
      </trkpt>
      <trkpt lat="36.958380" lon="-112.965240">
        <ele>1536.341</ele>
        <time>2018-12-28T22:27:22Z</time>
      </trkpt>
      <trkpt lat="36.956240" lon="-112.963530">
        <ele>1529.165</ele>
        <time>2018-12-28T22:27:42Z</time>
      </trkpt>
      <trkpt lat="36.954210" lon="-112.961930">
        <ele>1523.129</ele>
        <time>2018-12-28T22:28:02Z</time>
      </trkpt>
      <trkpt lat="36.952580" lon="-112.960610">
        <ele>1521.838</ele>
        <time>2018-12-28T22:28:22Z</time>
      </trkpt>
      <trkpt lat="36.952090" lon="-112.960210">
        <ele>1521.463</ele>
        <time>2018-12-28T22:28:42Z</time>
      </trkpt>
      <trkpt lat="36.949310" lon="-112.958000">
        <ele>1519.314</ele>
        <time>2018-12-28T22:29:02Z</time>
      </trkpt>
      <trkpt lat="36.947220" lon="-112.956360">
        <ele>1519.054</ele>
        <time>2018-12-28T22:29:22Z</time>
      </trkpt>
      <trkpt lat="36.946860" lon="-112.956070">
        <ele>1519.109</ele>
        <time>2018-12-28T22:29:42Z</time>
      </trkpt>
      <trkpt lat="36.946220" lon="-112.955570">
        <ele>1518.908</ele>
        <time>2018-12-28T22:30:02Z</time>
      </trkpt>
      <trkpt lat="36.945500" lon="-112.955030">
        <ele>1517.274</ele>
        <time>2018-12-28T22:30:22Z</time>
      </trkpt>
      <trkpt lat="36.944480" lon="-112.954220">
        <ele>1515.892</ele>
        <time>2018-12-28T22:30:42Z</time>
      </trkpt>
      <trkpt lat="36.943530" lon="-112.953480">
        <ele>1514.867</ele>
        <time>2018-12-28T22:31:02Z</time>
      </trkpt>
      <trkpt lat="36.942670" lon="-112.952800">
        <ele>1514.268</ele>
        <time>2018-12-28T22:31:22Z</time>
      </trkpt>
      <trkpt lat="36.941570" lon="-112.951950">
        <ele>1513.152</ele>
        <time>2018-12-28T22:31:42Z</time>
      </trkpt>
      <trkpt lat="36.940480" lon="-112.951100">
        <ele>1512.736</ele>
        <time>2018-12-28T22:32:02Z</time>
      </trkpt>
      <trkpt lat="36.939530" lon="-112.950350">
        <ele>1512.715</ele>
        <time>2018-12-28T22:32:22Z</time>
      </trkpt>
      <trkpt lat="36.939370" lon="-112.950220">
        <ele>1512.760</ele>
        <time>2018-12-28T22:32:42Z</time>
      </trkpt>
      <trkpt lat="36.938820" lon="-112.949790">
        <ele>1512.751</ele>
        <time>2018-12-28T22:33:02Z</time>
      </trkpt>
      <trkpt lat="36.938620" lon="-112.949630">
        <ele>1512.701</ele>
        <time>2018-12-28T22:33:22Z</time>
      </trkpt>
      <trkpt lat="36.937590" lon="-112.948830">
        <ele>1512.711</ele>
        <time>2018-12-28T22:33:42Z</time>
      </trkpt>
      <trkpt lat="36.937080" lon="-112.948430">
        <ele>1512.708</ele>
        <time>2018-12-28T22:34:02Z</time>
      </trkpt>
      <trkpt lat="36.936500" lon="-112.947970">
        <ele>1512.818</ele>
        <time>2018-12-28T22:34:22Z</time>
      </trkpt>
      <trkpt lat="36.935720" lon="-112.947360">
        <ele>1512.716</ele>
        <time>2018-12-28T22:34:42Z</time>
      </trkpt>
      <trkpt lat="36.934910" lon="-112.946730">
        <ele>1512.771</ele>
        <time>2018-12-28T22:35:02Z</time>
      </trkpt>
      <trkpt lat="36.932320" lon="-112.944710">
        <ele>1512.792</ele>
        <time>2018-12-28T22:35:22Z</time>
      </trkpt>
      <trkpt lat="36.932110" lon="-112.944540">
        <ele>1512.736</ele>
        <time>2018-12-28T22:35:42Z</time>
      </trkpt>
      <trkpt lat="36.931610" lon="-112.944150">
        <ele>1512.780</ele>
        <time>2018-12-28T22:36:02Z</time>
      </trkpt>
      <trkpt lat="36.930940" lon="-112.943630">
        <ele>1512.889</ele>
        <time>2018-12-28T22:36:22Z</time>
      </trkpt>
      <trkpt lat="36.929990" lon="-112.942880">
        <ele>1512.844</ele>
        <time>2018-12-28T22:36:42Z</time>
      </trkpt>
      <trkpt lat="36.929260" lon="-112.942320">
        <ele>1512.997</ele>
        <time>2018-12-28T22:37:02Z</time>
      </trkpt>
      <trkpt lat="36.929040" lon="-112.942150">
        <ele>1512.823</ele>
        <time>2018-12-28T22:37:22Z</time>
      </trkpt>
      <trkpt lat="36.928370" lon="-112.941620">
        <ele>1513.125</ele>
        <time>2018-12-28T22:37:42Z</time>
      </trkpt>
      <trkpt lat="36.927940" lon="-112.941280">
        <ele>1513.808</ele>
        <time>2018-12-28T22:38:02Z</time>
      </trkpt>
      <trkpt lat="36.927550" lon="-112.940980">
        <ele>1514.252</ele>
        <time>2018-12-28T22:38:22Z</time>
      </trkpt>
      <trkpt lat="36.926750" lon="-112.940340">
        <ele>1514.910</ele>
        <time>2018-12-28T22:38:42Z</time>
      </trkpt>
      <trkpt lat="36.926640" lon="-112.940250">
        <ele>1515.115</ele>
        <time>2018-12-28T22:39:02Z</time>
      </trkpt>
      <trkpt lat="36.926370" lon="-112.940030">
        <ele>1515.736</ele>
        <time>2018-12-28T22:39:22Z</time>
      </trkpt>
      <trkpt lat="36.926050" lon="-112.939780">
        <ele>1516.470</ele>
        <time>2018-12-28T22:39:42Z</time>
      </trkpt>
      <trkpt lat="36.925690" lon="-112.939500">
        <ele>1516.924</ele>
        <time>2018-12-28T22:40:02Z</time>
      </trkpt>
      <trkpt lat="36.925250" lon="-112.939150">
        <ele>1517.563</ele>
        <time>2018-12-28T22:40:22Z</time>
      </trkpt>
      <trkpt lat="36.925020" lon="-112.938970">
        <ele>1517.818</ele>
        <time>2018-12-28T22:40:42Z</time>
      </trkpt>
      <trkpt lat="36.924800" lon="-112.938790">
        <ele>1518.014</ele>
        <time>2018-12-28T22:41:02Z</time>
      </trkpt>
      <trkpt lat="36.924230" lon="-112.938320">
        <ele>1518.754</ele>
        <time>2018-12-28T22:41:22Z</time>
      </trkpt>
      <trkpt lat="36.923740" lon="-112.937930">
        <ele>1519.009</ele>
        <time>2018-12-28T22:41:42Z</time>
      </trkpt>
      <trkpt lat="36.923480" lon="-112.937720">
        <ele>1519.908</ele>
        <time>2018-12-28T22:42:02Z</time>
      </trkpt>
      <trkpt lat="36.922930" lon="-112.937270">
        <ele>1524.364</ele>
        <time>2018-12-28T22:42:22Z</time>
      </trkpt>
      <trkpt lat="36.921140" lon="-112.935840">
        <ele>1526.642</ele>
        <time>2018-12-28T22:42:42Z</time>
      </trkpt>
      <trkpt lat="36.920080" lon="-112.934990">
        <ele>1530.587</ele>
        <time>2018-12-28T22:43:02Z</time>
      </trkpt>
      <trkpt lat="36.918920" lon="-112.934050">
        <ele>1532.418</ele>
        <time>2018-12-28T22:43:22Z</time>
      </trkpt>
      <trkpt lat="36.918530" lon="-112.933750">
        <ele>1534.122</ele>
        <time>2018-12-28T22:43:42Z</time>
      </trkpt>
      <trkpt lat="36.917610" lon="-112.933010">
        <ele>1537.546</ele>
        <time>2018-12-28T22:44:02Z</time>
      </trkpt>
      <trkpt lat="36.917340" lon="-112.932790">
        <ele>1540.845</ele>
        <time>2018-12-28T22:44:22Z</time>
      </trkpt>
      <trkpt lat="36.916600" lon="-112.932190">
        <ele>1545.630</ele>
        <time>2018-12-28T22:44:42Z</time>
      </trkpt>
      <trkpt lat="36.915650" lon="-112.931450">
        <ele>1549.886</ele>
        <time>2018-12-28T22:45:02Z</time>
      </trkpt>
      <trkpt lat="36.915130" lon="-112.931020">
        <ele>1551.060</ele>
        <time>2018-12-28T22:45:22Z</time>
      </trkpt>
      <trkpt lat="36.914360" lon="-112.930410">
        <ele>1552.726</ele>
        <time>2018-12-28T22:45:42Z</time>
      </trkpt>
      <trkpt lat="36.913750" lon="-112.929910">
        <ele>1551.408</ele>
        <time>2018-12-28T22:46:02Z</time>
      </trkpt>
      <trkpt lat="36.912850" lon="-112.929190">
        <ele>1550.031</ele>
        <time>2018-12-28T22:46:22Z</time>
      </trkpt>
      <trkpt lat="36.912530" lon="-112.928930">
        <ele>1549.369</ele>
        <time>2018-12-28T22:46:42Z</time>
      </trkpt>
      <trkpt lat="36.912040" lon="-112.928540">
        <ele>1549.294</ele>
        <time>2018-12-28T22:47:02Z</time>
      </trkpt>
      <trkpt lat="36.911340" lon="-112.927970">
        <ele>1547.945</ele>
        <time>2018-12-28T22:47:22Z</time>
      </trkpt>
      <trkpt lat="36.910550" lon="-112.927350">
        <ele>1546.649</ele>
        <time>2018-12-28T22:47:42Z</time>
      </trkpt>
      <trkpt lat="36.910300" lon="-112.927140">
        <ele>1546.553</ele>
        <time>2018-12-28T22:48:02Z</time>
      </trkpt>
      <trkpt lat="36.904750" lon="-112.922700">
        <ele>1563.972</ele>
        <time>2018-12-28T22:48:22Z</time>
      </trkpt>
      <trkpt lat="36.904030" lon="-112.922120">
        <ele>1565.727</ele>
        <time>2018-12-28T22:48:42Z</time>
      </trkpt>
      <trkpt lat="36.903880" lon="-112.921990">
        <ele>1566.251</ele>
        <time>2018-12-28T22:49:02Z</time>
      </trkpt>
      <trkpt lat="36.903590" lon="-112.921760">
        <ele>1567.101</ele>
        <time>2018-12-28T22:49:22Z</time>
      </trkpt>
      <trkpt lat="36.903040" lon="-112.921310">
        <ele>1567.711</ele>
        <time>2018-12-28T22:49:42Z</time>
      </trkpt>
      <trkpt lat="36.902760" lon="-112.921080">
        <ele>1568.208</ele>
        <time>2018-12-28T22:50:02Z</time>
      </trkpt>
      <trkpt lat="36.902300" lon="-112.920720">
        <ele>1569.138</ele>
        <time>2018-12-28T22:50:22Z</time>
      </trkpt>
      <trkpt lat="36.901780" lon="-112.920300">
        <ele>1569.966</ele>
        <time>2018-12-28T22:50:42Z</time>
      </trkpt>
      <trkpt lat="36.901050" lon="-112.919720">
        <ele>1569.291</ele>
        <time>2018-12-28T22:51:02Z</time>
      </trkpt>
      <trkpt lat="36.900650" lon="-112.919400">
        <ele>1569.662</ele>
        <time>2018-12-28T22:51:22Z</time>
      </trkpt>
      <trkpt lat="36.900190" lon="-112.919030">
        <ele>1569.896</ele>
        <time>2018-12-28T22:51:42Z</time>
      </trkpt>
      <trkpt lat="36.899690" lon="-112.918620">
        <ele>1570.560</ele>
        <time>2018-12-28T22:52:02Z</time>
      </trkpt>
      <trkpt lat="36.898990" lon="-112.918070">
        <ele>1571.199</ele>
        <time>2018-12-28T22:52:22Z</time>
      </trkpt>
      <trkpt lat="36.898670" lon="-112.917820">
        <ele>1571.524</ele>
        <time>2018-12-28T22:52:42Z</time>
      </trkpt>
      <trkpt lat="36.898130" lon="-112.917390">
        <ele>1572.782</ele>
        <time>2018-12-28T22:53:02Z</time>
      </trkpt>
      <trkpt lat="36.896250" lon="-112.915860">
        <ele>1575.443</ele>
        <time>2018-12-28T22:53:22Z</time>
      </trkpt>
      <trkpt lat="36.895250" lon="-112.915070">
        <ele>1575.517</ele>
        <time>2018-12-28T22:53:42Z</time>
      </trkpt>
      <trkpt lat="36.894600" lon="-112.914540">
        <ele>1575.808</ele>
        <time>2018-12-28T22:54:02Z</time>
      </trkpt>
      <trkpt lat="36.894140" lon="-112.914170">
        <ele>1576.031</ele>
        <time>2018-12-28T22:54:22Z</time>
      </trkpt>
      <trkpt lat="36.893750" lon="-112.913850">
        <ele>1576.429</ele>
        <time>2018-12-28T22:54:42Z</time>
      </trkpt>
      <trkpt lat="36.893530" lon="-112.913680">
        <ele>1576.884</ele>
        <time>2018-12-28T22:55:02Z</time>
      </trkpt>
      <trkpt lat="36.893340" lon="-112.913530">
        <ele>1577.115</ele>
        <time>2018-12-28T22:55:22Z</time>
      </trkpt>
      <trkpt lat="36.893180" lon="-112.913400">
        <ele>1577.369</ele>
        <time>2018-12-28T22:55:42Z</time>
      </trkpt>
      <trkpt lat="36.893070" lon="-112.913300">
        <ele>1577.693</ele>
        <time>2018-12-28T22:56:02Z</time>
      </trkpt>
      <trkpt lat="36.892960" lon="-112.913220">
        <ele>1577.762</ele>
        <time>2018-12-28T22:56:22Z</time>
      </trkpt>
      <trkpt lat="36.892830" lon="-112.913110">
        <ele>1577.917</ele>
        <time>2018-12-28T22:56:42Z</time>
      </trkpt>
      <trkpt lat="36.892530" lon="-112.912850">
        <ele>1578.163</ele>
        <time>2018-12-28T22:57:02Z</time>
      </trkpt>
      <trkpt lat="36.892160" lon="-112.912530">
        <ele>1579.044</ele>
        <time>2018-12-28T22:57:22Z</time>
      </trkpt>
      <trkpt lat="36.891980" lon="-112.912360">
        <ele>1579.618</ele>
        <time>2018-12-28T22:57:42Z</time>
      </trkpt>
      <trkpt lat="36.891770" lon="-112.912180">
        <ele>1579.708</ele>
        <time>2018-12-28T22:58:02Z</time>
      </trkpt>
      <trkpt lat="36.891630" lon="-112.912040">
        <ele>1579.729</ele>
        <time>2018-12-28T22:58:22Z</time>
      </trkpt>
      <trkpt lat="36.891500" lon="-112.911920">
        <ele>1579.717</ele>
        <time>2018-12-28T22:58:42Z</time>
      </trkpt>
      <trkpt lat="36.891340" lon="-112.911770">
        <ele>1579.842</ele>
        <time>2018-12-28T22:59:02Z</time>
      </trkpt>
      <trkpt lat="36.891110" lon="-112.911550">
        <ele>1579.953</ele>
        <time>2018-12-28T22:59:22Z</time>
      </trkpt>
      <trkpt lat="36.890710" lon="-112.911160">
        <ele>1580.677</ele>
        <time>2018-12-28T22:59:42Z</time>
      </trkpt>
      <trkpt lat="36.890400" lon="-112.910840">
        <ele>1581.371</ele>
        <time>2018-12-28T23:00:02Z</time>
      </trkpt>
      <trkpt lat="36.890040" lon="-112.910460">
        <ele>1583.190</ele>
        <time>2018-12-28T23:00:22Z</time>
      </trkpt>
      <trkpt lat="36.889710" lon="-112.910120">
        <ele>1585.035</ele>
        <time>2018-12-28T23:00:42Z</time>
      </trkpt>
      <trkpt lat="36.889190" lon="-112.909530">
        <ele>1585.978</ele>
        <time>2018-12-28T23:01:02Z</time>
      </trkpt>
      <trkpt lat="36.888640" lon="-112.908880">
        <ele>1587.233</ele>
        <time>2018-12-28T23:01:22Z</time>
      </trkpt>
      <trkpt lat="36.888150" lon="-112.908300">
        <ele>1589.226</ele>
        <time>2018-12-28T23:01:42Z</time>
      </trkpt>
      <trkpt lat="36.887820" lon="-112.907890">
        <ele>1590.708</ele>
        <time>2018-12-28T23:02:02Z</time>
      </trkpt>
      <trkpt lat="36.887470" lon="-112.907420">
        <ele>1591.950</ele>
        <time>2018-12-28T23:02:22Z</time>
      </trkpt>
      <trkpt lat="36.887170" lon="-112.907020">
        <ele>1592.098</ele>
        <time>2018-12-28T23:02:42Z</time>
      </trkpt>
      <trkpt lat="36.886910" lon="-112.906640">
        <ele>1592.383</ele>
        <time>2018-12-28T23:03:02Z</time>
      </trkpt>
      <trkpt lat="36.886500" lon="-112.906070">
        <ele>1592.944</ele>
        <time>2018-12-28T23:03:22Z</time>
      </trkpt>
      <trkpt lat="36.886050" lon="-112.905400">
        <ele>1593.598</ele>
        <time>2018-12-28T23:03:42Z</time>
      </trkpt>
      <trkpt lat="36.885620" lon="-112.904740">
        <ele>1594.032</ele>
        <time>2018-12-28T23:04:02Z</time>
      </trkpt>
      <trkpt lat="36.885300" lon="-112.904210">
        <ele>1594.661</ele>
        <time>2018-12-28T23:04:22Z</time>
      </trkpt>
      <trkpt lat="36.884950" lon="-112.903640">
        <ele>1595.846</ele>
        <time>2018-12-28T23:04:42Z</time>
      </trkpt>
      <trkpt lat="36.884530" lon="-112.902900">
        <ele>1597.913</ele>
        <time>2018-12-28T23:05:02Z</time>
      </trkpt>
      <trkpt lat="36.884250" lon="-112.902380">
        <ele>1598.043</ele>
        <time>2018-12-28T23:05:22Z</time>
      </trkpt>
      <trkpt lat="36.884060" lon="-112.902030">
        <ele>1598.007</ele>
        <time>2018-12-28T23:05:42Z</time>
      </trkpt>
      <trkpt lat="36.883900" lon="-112.901730">
        <ele>1598.008</ele>
        <time>2018-12-28T23:06:02Z</time>
      </trkpt>
      <trkpt lat="36.883760" lon="-112.901440">
        <ele>1598.024</ele>
        <time>2018-12-28T23:06:22Z</time>
      </trkpt>
      <trkpt lat="36.883630" lon="-112.901190">
        <ele>1598.052</ele>
        <time>2018-12-28T23:06:42Z</time>
      </trkpt>
      <trkpt lat="36.883510" lon="-112.900930">
        <ele>1598.097</ele>
        <time>2018-12-28T23:07:02Z</time>
      </trkpt>
      <trkpt lat="36.883360" lon="-112.900640">
        <ele>1598.088</ele>
        <time>2018-12-28T23:07:22Z</time>
      </trkpt>
      <trkpt lat="36.883240" lon="-112.900380">
        <ele>1598.022</ele>
        <time>2018-12-28T23:07:42Z</time>
      </trkpt>
      <trkpt lat="36.882950" lon="-112.899720">
        <ele>1598.046</ele>
        <time>2018-12-28T23:08:02Z</time>
      </trkpt>
      <trkpt lat="36.882670" lon="-112.899090">
        <ele>1598.335</ele>
        <time>2018-12-28T23:08:22Z</time>
      </trkpt>
      <trkpt lat="36.882440" lon="-112.898550">
        <ele>1598.650</ele>
        <time>2018-12-28T23:08:42Z</time>
      </trkpt>
      <trkpt lat="36.882330" lon="-112.898290">
        <ele>1598.661</ele>
        <time>2018-12-28T23:09:02Z</time>
      </trkpt>
      <trkpt lat="36.882120" lon="-112.897750">
        <ele>1598.121</ele>
        <time>2018-12-28T23:09:22Z</time>
      </trkpt>
      <trkpt lat="36.881890" lon="-112.897150">
        <ele>1598.113</ele>
        <time>2018-12-28T23:09:42Z</time>
      </trkpt>
      <trkpt lat="36.881750" lon="-112.896780">
        <ele>1594.108</ele>
        <time>2018-12-28T23:10:02Z</time>
      </trkpt>
      <trkpt lat="36.881640" lon="-112.896470">
        <ele>1596.349</ele>
        <time>2018-12-28T23:10:22Z</time>
      </trkpt>
      <trkpt lat="36.881500" lon="-112.896080">
        <ele>1594.567</ele>
        <time>2018-12-28T23:10:42Z</time>
      </trkpt>
      <trkpt lat="36.881380" lon="-112.895720">
        <ele>1592.082</ele>
        <time>2018-12-28T23:11:02Z</time>
      </trkpt>
      <trkpt lat="36.881280" lon="-112.895390">
        <ele>1588.223</ele>
        <time>2018-12-28T23:11:22Z</time>
      </trkpt>
      <trkpt lat="36.881100" lon="-112.894830">
        <ele>1585.617</ele>
        <time>2018-12-28T23:11:42Z</time>
      </trkpt>
      <trkpt lat="36.880980" lon="-112.894440">
        <ele>1585.891</ele>
        <time>2018-12-28T23:12:02Z</time>
      </trkpt>
      <trkpt lat="36.880920" lon="-112.894250">
        <ele>1584.920</ele>
        <time>2018-12-28T23:12:22Z</time>
      </trkpt>
      <trkpt lat="36.880870" lon="-112.894090">
        <ele>1583.085</ele>
        <time>2018-12-28T23:12:42Z</time>
      </trkpt>
      <trkpt lat="36.880810" lon="-112.893890">
        <ele>1580.799</ele>
        <time>2018-12-28T23:13:02Z</time>
      </trkpt>
      <trkpt lat="36.880770" lon="-112.893720">
        <ele>1579.507</ele>
        <time>2018-12-28T23:13:22Z</time>
      </trkpt>
      <trkpt lat="36.880720" lon="-112.893560">
        <ele>1579.827</ele>
        <time>2018-12-28T23:13:42Z</time>
      </trkpt>
      <trkpt lat="36.880670" lon="-112.893370">
        <ele>1579.808</ele>
        <time>2018-12-28T23:14:02Z</time>
      </trkpt>
      <trkpt lat="36.880570" lon="-112.893000">
        <ele>1579.022</ele>
        <time>2018-12-28T23:14:22Z</time>
      </trkpt>
      <trkpt lat="36.880440" lon="-112.892500">
        <ele>1574.710</ele>
        <time>2018-12-28T23:14:42Z</time>
      </trkpt>
      <trkpt lat="36.880000" lon="-112.890870">
        <ele>1567.555</ele>
        <time>2018-12-28T23:15:02Z</time>
      </trkpt>
      <trkpt lat="36.879360" lon="-112.888450">
        <ele>1558.256</ele>
        <time>2018-12-28T23:15:22Z</time>
      </trkpt>
      <trkpt lat="36.878690" lon="-112.885890">
        <ele>1548.510</ele>
        <time>2018-12-28T23:15:42Z</time>
      </trkpt>
      <trkpt lat="36.876220" lon="-112.876540">
        <ele>1525.924</ele>
        <time>2018-12-28T23:16:02Z</time>
      </trkpt>
      <trkpt lat="36.876010" lon="-112.875730">
        <ele>1526.543</ele>
        <time>2018-12-28T23:16:22Z</time>
      </trkpt>
      <trkpt lat="36.875810" lon="-112.875000">
        <ele>1526.388</ele>
        <time>2018-12-28T23:16:42Z</time>
      </trkpt>
      <trkpt lat="36.875500" lon="-112.873820">
        <ele>1526.652</ele>
        <time>2018-12-28T23:17:02Z</time>
      </trkpt>
      <trkpt lat="36.874840" lon="-112.871310">
        <ele>1526.553</ele>
        <time>2018-12-28T23:17:22Z</time>
      </trkpt>
      <trkpt lat="36.873800" lon="-112.867380">
        <ele>1525.208</ele>
        <time>2018-12-28T23:17:42Z</time>
      </trkpt>
      <trkpt lat="36.873310" lon="-112.865510">
        <ele>1524.608</ele>
        <time>2018-12-28T23:18:02Z</time>
      </trkpt>
      <trkpt lat="36.872790" lon="-112.863540">
        <ele>1524.528</ele>
        <time>2018-12-28T23:18:22Z</time>
      </trkpt>
      <trkpt lat="36.872300" lon="-112.861710">
        <ele>1524.026</ele>
        <time>2018-12-28T23:18:42Z</time>
      </trkpt>
      <trkpt lat="36.871190" lon="-112.857490">
        <ele>1521.961</ele>
        <time>2018-12-28T23:19:02Z</time>
      </trkpt>
      <trkpt lat="36.870670" lon="-112.855510">
        <ele>1520.912</ele>
        <time>2018-12-28T23:19:22Z</time>
      </trkpt>
      <trkpt lat="36.870250" lon="-112.853900">
        <ele>1520.446</ele>
        <time>2018-12-28T23:19:42Z</time>
      </trkpt>
      <trkpt lat="36.869050" lon="-112.849390">
        <ele>1515.680</ele>
        <time>2018-12-28T23:20:02Z</time>
      </trkpt>
      <trkpt lat="36.868070" lon="-112.845660">
        <ele>1512.929</ele>
        <time>2018-12-28T23:20:22Z</time>
      </trkpt>
      <trkpt lat="36.867820" lon="-112.844720">
        <ele>1512.074</ele>
        <time>2018-12-28T23:20:42Z</time>
      </trkpt>
      <trkpt lat="36.867550" lon="-112.843670">
        <ele>1510.342</ele>
        <time>2018-12-28T23:21:02Z</time>
      </trkpt>
      <trkpt lat="36.867380" lon="-112.843030">
        <ele>1509.422</ele>
        <time>2018-12-28T23:21:22Z</time>
      </trkpt>
      <trkpt lat="36.867170" lon="-112.842210">
        <ele>1508.414</ele>
        <time>2018-12-28T23:21:42Z</time>
      </trkpt>
      <trkpt lat="36.866510" lon="-112.839770">
        <ele>1508.608</ele>
        <time>2018-12-28T23:22:02Z</time>
      </trkpt>
      <trkpt lat="36.866230" lon="-112.838690">
        <ele>1507.727</ele>
        <time>2018-12-28T23:22:22Z</time>
      </trkpt>
      <trkpt lat="36.865900" lon="-112.837420">
        <ele>1506.635</ele>
        <time>2018-12-28T23:22:42Z</time>
      </trkpt>
      <trkpt lat="36.865520" lon="-112.836000">
        <ele>1505.450</ele>
        <time>2018-12-28T23:23:02Z</time>
      </trkpt>
      <trkpt lat="36.865060" lon="-112.834250">
        <ele>1504.771</ele>
        <time>2018-12-28T23:23:22Z</time>
      </trkpt>
      <trkpt lat="36.864900" lon="-112.833660">
        <ele>1504.595</ele>
        <time>2018-12-28T23:23:42Z</time>
      </trkpt>
      <trkpt lat="36.864730" lon="-112.832970">
        <ele>1504.249</ele>
        <time>2018-12-28T23:24:02Z</time>
      </trkpt>
      <trkpt lat="36.864390" lon="-112.831730">
        <ele>1503.788</ele>
        <time>2018-12-28T23:24:22Z</time>
      </trkpt>
      <trkpt lat="36.864130" lon="-112.830710">
        <ele>1503.873</ele>
        <time>2018-12-28T23:24:42Z</time>
      </trkpt>
      <trkpt lat="36.863910" lon="-112.829900">
        <ele>1503.873</ele>
        <time>2018-12-28T23:25:02Z</time>
      </trkpt>
      <trkpt lat="36.863590" lon="-112.828710">
        <ele>1503.785</ele>
        <time>2018-12-28T23:25:22Z</time>
      </trkpt>
      <trkpt lat="36.863210" lon="-112.827310">
        <ele>1503.313</ele>
        <time>2018-12-28T23:25:42Z</time>
      </trkpt>
      <trkpt lat="36.862750" lon="-112.825590">
        <ele>1502.808</ele>
        <time>2018-12-28T23:26:02Z</time>
      </trkpt>
      <trkpt lat="36.862270" lon="-112.823780">
        <ele>1502.450</ele>
        <time>2018-12-28T23:26:22Z</time>
      </trkpt>
      <trkpt lat="36.861570" lon="-112.821090">
        <ele>1501.888</ele>
        <time>2018-12-28T23:26:42Z</time>
      </trkpt>
      <trkpt lat="36.861320" lon="-112.820130">
        <ele>1502.083</ele>
        <time>2018-12-28T23:27:02Z</time>
      </trkpt>
      <trkpt lat="36.861010" lon="-112.818970">
        <ele>1502.144</ele>
        <time>2018-12-28T23:27:22Z</time>
      </trkpt>
      <trkpt lat="36.859960" lon="-112.814990">
        <ele>1500.898</ele>
        <time>2018-12-28T23:27:42Z</time>
      </trkpt>
      <trkpt lat="36.859890" lon="-112.814710">
        <ele>1500.832</ele>
        <time>2018-12-28T23:28:02Z</time>
      </trkpt>
      <trkpt lat="36.859800" lon="-112.814370">
        <ele>1500.811</ele>
        <time>2018-12-28T23:28:22Z</time>
      </trkpt>
      <trkpt lat="36.859720" lon="-112.814030">
        <ele>1500.776</ele>
        <time>2018-12-28T23:28:42Z</time>
      </trkpt>
      <trkpt lat="36.859620" lon="-112.813650">
        <ele>1500.647</ele>
        <time>2018-12-28T23:29:02Z</time>
      </trkpt>
      <trkpt lat="36.859540" lon="-112.813270">
        <ele>1500.529</ele>
        <time>2018-12-28T23:29:22Z</time>
      </trkpt>
      <trkpt lat="36.859430" lon="-112.812800">
        <ele>1500.521</ele>
        <time>2018-12-28T23:29:42Z</time>
      </trkpt>
      <trkpt lat="36.859350" lon="-112.812410">
        <ele>1500.508</ele>
        <time>2018-12-28T23:30:02Z</time>
      </trkpt>
      <trkpt lat="36.859270" lon="-112.811980">
        <ele>1500.177</ele>
        <time>2018-12-28T23:30:22Z</time>
      </trkpt>
      <trkpt lat="36.859170" lon="-112.811500">
        <ele>1498.915</ele>
        <time>2018-12-28T23:30:42Z</time>
      </trkpt>
      <trkpt lat="36.859070" lon="-112.810960">
        <ele>1498.060</ele>
        <time>2018-12-28T23:31:02Z</time>
      </trkpt>
      <trkpt lat="36.859010" lon="-112.810630">
        <ele>1497.781</ele>
        <time>2018-12-28T23:31:22Z</time>
      </trkpt>
      <trkpt lat="36.858970" lon="-112.810330">
        <ele>1497.495</ele>
        <time>2018-12-28T23:31:42Z</time>
      </trkpt>
      <trkpt lat="36.858930" lon="-112.810080">
        <ele>1497.299</ele>
        <time>2018-12-28T23:32:02Z</time>
      </trkpt>
      <trkpt lat="36.858830" lon="-112.809390">
        <ele>1496.818</ele>
        <time>2018-12-28T23:32:22Z</time>
      </trkpt>
      <trkpt lat="36.858780" lon="-112.809000">
        <ele>1496.613</ele>
        <time>2018-12-28T23:32:42Z</time>
      </trkpt>
      <trkpt lat="36.858740" lon="-112.808640">
        <ele>1496.588</ele>
        <time>2018-12-28T23:33:02Z</time>
      </trkpt>
      <trkpt lat="36.858700" lon="-112.808310">
        <ele>1496.424</ele>
        <time>2018-12-28T23:33:22Z</time>
      </trkpt>
      <trkpt lat="36.858660" lon="-112.807940">
        <ele>1496.326</ele>
        <time>2018-12-28T23:33:42Z</time>
      </trkpt>
      <trkpt lat="36.858620" lon="-112.807610">
        <ele>1496.108</ele>
        <time>2018-12-28T23:34:02Z</time>
      </trkpt>
      <trkpt lat="36.858580" lon="-112.807150">
        <ele>1496.021</ele>
        <time>2018-12-28T23:34:22Z</time>
      </trkpt>
      <trkpt lat="36.858540" lon="-112.806720">
        <ele>1495.859</ele>
        <time>2018-12-28T23:34:42Z</time>
      </trkpt>
      <trkpt lat="36.858500" lon="-112.806250">
        <ele>1495.624</ele>
        <time>2018-12-28T23:35:02Z</time>
      </trkpt>
      <trkpt lat="36.858460" lon="-112.805730">
        <ele>1495.275</ele>
        <time>2018-12-28T23:35:22Z</time>
      </trkpt>
      <trkpt lat="36.858440" lon="-112.805160">
        <ele>1494.769</ele>
        <time>2018-12-28T23:35:42Z</time>
      </trkpt>
      <trkpt lat="36.858420" lon="-112.804720">
        <ele>1494.323</ele>
        <time>2018-12-28T23:36:02Z</time>
      </trkpt>
      <trkpt lat="36.858410" lon="-112.804260">
        <ele>1494.372</ele>
        <time>2018-12-28T23:36:22Z</time>
      </trkpt>
      <trkpt lat="36.858390" lon="-112.803630">
        <ele>1494.217</ele>
        <time>2018-12-28T23:36:42Z</time>
      </trkpt>
      <trkpt lat="36.858390" lon="-112.803070">
        <ele>1494.232</ele>
        <time>2018-12-28T23:37:02Z</time>
      </trkpt>
      <trkpt lat="36.858380" lon="-112.802440">
        <ele>1494.292</ele>
        <time>2018-12-28T23:37:22Z</time>
      </trkpt>
      <trkpt lat="36.858370" lon="-112.801390">
        <ele>1494.211</ele>
        <time>2018-12-28T23:37:42Z</time>
      </trkpt>
      <trkpt lat="36.858340" lon="-112.798850">
        <ele>1492.508</ele>
        <time>2018-12-28T23:38:02Z</time>
      </trkpt>
      <trkpt lat="36.858280" lon="-112.794030">
        <ele>1490.486</ele>
        <time>2018-12-28T23:38:22Z</time>
      </trkpt>
      <trkpt lat="36.858230" lon="-112.790290">
        <ele>1487.354</ele>
        <time>2018-12-28T23:38:42Z</time>
      </trkpt>
      <trkpt lat="36.858190" lon="-112.786180">
        <ele>1484.849</ele>
        <time>2018-12-28T23:39:02Z</time>
      </trkpt>
      <trkpt lat="36.858150" lon="-112.782800">
        <ele>1482.180</ele>
        <time>2018-12-28T23:39:22Z</time>
      </trkpt>
      <trkpt lat="36.858130" lon="-112.781560">
        <ele>1480.144</ele>
        <time>2018-12-28T23:39:42Z</time>
      </trkpt>
      <trkpt lat="36.858110" lon="-112.779950">
        <ele>1478.628</ele>
        <time>2018-12-28T23:40:02Z</time>
      </trkpt>
      <trkpt lat="36.858100" lon="-112.778940">
        <ele>1480.767</ele>
        <time>2018-12-28T23:40:22Z</time>
      </trkpt>
      <trkpt lat="36.858070" lon="-112.776430">
        <ele>1487.862</ele>
        <time>2018-12-28T23:40:42Z</time>
      </trkpt>
      <trkpt lat="36.858030" lon="-112.772700">
        <ele>1489.042</ele>
        <time>2018-12-28T23:41:02Z</time>
      </trkpt>
      <trkpt lat="36.857990" lon="-112.769620">
        <ele>1484.522</ele>
        <time>2018-12-28T23:41:22Z</time>
      </trkpt>
      <trkpt lat="36.857950" lon="-112.767340">
        <ele>1477.314</ele>
        <time>2018-12-28T23:41:42Z</time>
      </trkpt>
      <trkpt lat="36.857940" lon="-112.765990">
        <ele>1476.108</ele>
        <time>2018-12-28T23:42:02Z</time>
      </trkpt>
      <trkpt lat="36.857910" lon="-112.763590">
        <ele>1473.947</ele>
        <time>2018-12-28T23:42:22Z</time>
      </trkpt>
      <trkpt lat="36.857880" lon="-112.760420">
        <ele>1471.465</ele>
        <time>2018-12-28T23:42:42Z</time>
      </trkpt>
      <trkpt lat="36.857860" lon="-112.759300">
        <ele>1470.020</ele>
        <time>2018-12-28T23:43:02Z</time>
      </trkpt>
      <trkpt lat="36.857850" lon="-112.758340">
        <ele>1470.791</ele>
        <time>2018-12-28T23:43:22Z</time>
      </trkpt>
      <trkpt lat="36.857820" lon="-112.754940">
        <ele>1473.495</ele>
        <time>2018-12-28T23:43:42Z</time>
      </trkpt>
      <trkpt lat="36.857760" lon="-112.749940">
        <ele>1476.539</ele>
        <time>2018-12-28T23:44:02Z</time>
      </trkpt>
      <trkpt lat="36.857680" lon="-112.744210">
        <ele>1482.958</ele>
        <time>2018-12-28T23:44:22Z</time>
      </trkpt>
      <trkpt lat="36.857590" lon="-112.735960">
        <ele>1493.413</ele>
        <time>2018-12-28T23:44:42Z</time>
      </trkpt>
      <trkpt lat="36.857590" lon="-112.735480">
        <ele>1493.293</ele>
        <time>2018-12-28T23:45:02Z</time>
      </trkpt>
      <trkpt lat="36.857610" lon="-112.734260">
        <ele>1492.365</ele>
        <time>2018-12-28T23:45:22Z</time>
      </trkpt>
      <trkpt lat="36.857610" lon="-112.733680">
        <ele>1491.121</ele>
        <time>2018-12-28T23:45:42Z</time>
      </trkpt>
      <trkpt lat="36.857630" lon="-112.733130">
        <ele>1490.208</ele>
        <time>2018-12-28T23:46:02Z</time>
      </trkpt>
      <trkpt lat="36.857660" lon="-112.732520">
        <ele>1489.822</ele>
        <time>2018-12-28T23:46:22Z</time>
      </trkpt>
      <trkpt lat="36.857670" lon="-112.732350">
        <ele>1489.940</ele>
        <time>2018-12-28T23:46:42Z</time>
      </trkpt>
      <trkpt lat="36.857680" lon="-112.732140">
        <ele>1490.035</ele>
        <time>2018-12-28T23:47:02Z</time>
      </trkpt>
      <trkpt lat="36.857700" lon="-112.731890">
        <ele>1490.376</ele>
        <time>2018-12-28T23:47:22Z</time>
      </trkpt>
      <trkpt lat="36.857710" lon="-112.731650">
        <ele>1490.680</ele>
        <time>2018-12-28T23:47:42Z</time>
      </trkpt>
      <trkpt lat="36.857730" lon="-112.731450">
        <ele>1490.884</ele>
        <time>2018-12-28T23:48:02Z</time>
      </trkpt>
      <trkpt lat="36.857760" lon="-112.731040">
        <ele>1491.143</ele>
        <time>2018-12-28T23:48:22Z</time>
      </trkpt>
      <trkpt lat="36.857790" lon="-112.730710">
        <ele>1491.058</ele>
        <time>2018-12-28T23:48:42Z</time>
      </trkpt>
      <trkpt lat="36.857820" lon="-112.730420">
        <ele>1490.811</ele>
        <time>2018-12-28T23:49:02Z</time>
      </trkpt>
      <trkpt lat="36.857840" lon="-112.730160">
        <ele>1490.221</ele>
        <time>2018-12-28T23:49:22Z</time>
      </trkpt>
      <trkpt lat="36.857870" lon="-112.729900">
        <ele>1489.103</ele>
        <time>2018-12-28T23:49:42Z</time>
      </trkpt>
      <trkpt lat="36.857940" lon="-112.729390">
        <ele>1488.208</ele>
        <time>2018-12-28T23:50:02Z</time>
      </trkpt>
      <trkpt lat="36.858000" lon="-112.728920">
        <ele>1488.034</ele>
        <time>2018-12-28T23:50:22Z</time>
      </trkpt>
      <trkpt lat="36.858030" lon="-112.728660">
        <ele>1487.572</ele>
        <time>2018-12-28T23:50:42Z</time>
      </trkpt>
      <trkpt lat="36.858070" lon="-112.728360">
        <ele>1486.687</ele>
        <time>2018-12-28T23:51:02Z</time>
      </trkpt>
      <trkpt lat="36.858110" lon="-112.728060">
        <ele>1485.578</ele>
        <time>2018-12-28T23:51:22Z</time>
      </trkpt>
      <trkpt lat="36.858160" lon="-112.727800">
        <ele>1484.862</ele>
        <time>2018-12-28T23:51:42Z</time>
      </trkpt>
      <trkpt lat="36.858200" lon="-112.727540">
        <ele>1484.476</ele>
        <time>2018-12-28T23:52:02Z</time>
      </trkpt>
      <trkpt lat="36.858250" lon="-112.727240">
        <ele>1484.345</ele>
        <time>2018-12-28T23:52:22Z</time>
      </trkpt>
      <trkpt lat="36.858300" lon="-112.726920">
        <ele>1484.290</ele>
        <time>2018-12-28T23:52:42Z</time>
      </trkpt>
      <trkpt lat="36.858360" lon="-112.726620">
        <ele>1484.128</ele>
        <time>2018-12-28T23:53:02Z</time>
      </trkpt>
      <trkpt lat="36.858430" lon="-112.726220">
        <ele>1483.889</ele>
        <time>2018-12-28T23:53:22Z</time>
      </trkpt>
      <trkpt lat="36.858510" lon="-112.725830">
        <ele>1482.817</ele>
        <time>2018-12-28T23:53:42Z</time>
      </trkpt>
      <trkpt lat="36.858690" lon="-112.724960">
        <ele>1481.408</ele>
        <time>2018-12-28T23:54:02Z</time>
      </trkpt>
      <trkpt lat="36.858790" lon="-112.724510">
        <ele>1480.965</ele>
        <time>2018-12-28T23:54:22Z</time>
      </trkpt>
      <trkpt lat="36.858980" lon="-112.723710">
        <ele>1480.943</ele>
        <time>2018-12-28T23:54:42Z</time>
      </trkpt>
      <trkpt lat="36.859130" lon="-112.723120">
        <ele>1479.658</ele>
        <time>2018-12-28T23:55:02Z</time>
      </trkpt>
      <trkpt lat="36.859240" lon="-112.722700">
        <ele>1477.049</ele>
        <time>2018-12-28T23:55:22Z</time>
      </trkpt>
      <trkpt lat="36.859390" lon="-112.722140">
        <ele>1475.783</ele>
        <time>2018-12-28T23:55:42Z</time>
      </trkpt>
      <trkpt lat="36.859560" lon="-112.721560">
        <ele>1475.357</ele>
        <time>2018-12-28T23:56:02Z</time>
      </trkpt>
      <trkpt lat="36.859740" lon="-112.720990">
        <ele>1474.926</ele>
        <time>2018-12-28T23:56:22Z</time>
      </trkpt>
      <trkpt lat="36.859940" lon="-112.720340">
        <ele>1472.911</ele>
        <time>2018-12-28T23:56:42Z</time>
      </trkpt>
      <trkpt lat="36.860450" lon="-112.718740">
        <ele>1469.376</ele>
        <time>2018-12-28T23:57:02Z</time>
      </trkpt>
      <trkpt lat="36.861110" lon="-112.716600">
        <ele>1463.990</ele>
        <time>2018-12-28T23:57:22Z</time>
      </trkpt>
      <trkpt lat="36.861620" lon="-112.714990">
        <ele>1458.619</ele>
        <time>2018-12-28T23:57:42Z</time>
      </trkpt>
      <trkpt lat="36.861800" lon="-112.714390">
        <ele>1458.208</ele>
        <time>2018-12-28T23:58:02Z</time>
      </trkpt>
      <trkpt lat="36.862410" lon="-112.712450">
        <ele>1455.670</ele>
        <time>2018-12-28T23:58:22Z</time>
      </trkpt>
      <trkpt lat="36.862920" lon="-112.710800">
        <ele>1455.858</ele>
        <time>2018-12-28T23:58:42Z</time>
      </trkpt>
      <trkpt lat="36.863590" lon="-112.708610">
        <ele>1452.643</ele>
        <time>2018-12-28T23:59:02Z</time>
      </trkpt>
      <trkpt lat="36.864010" lon="-112.707300">
        <ele>1449.734</ele>
        <time>2018-12-28T23:59:22Z</time>
      </trkpt>
      <trkpt lat="36.864150" lon="-112.706810">
        <ele>1448.478</ele>
        <time>2018-12-28T23:59:42Z</time>
      </trkpt>
      <trkpt lat="36.864300" lon="-112.706290">
        <ele>1447.472</ele>
        <time>2018-12-29T00:00:02Z</time>
      </trkpt>
      <trkpt lat="36.864410" lon="-112.705910">
        <ele>1446.791</ele>
        <time>2018-12-29T00:00:22Z</time>
      </trkpt>
      <trkpt lat="36.864510" lon="-112.705560">
        <ele>1446.466</ele>
        <time>2018-12-29T00:00:42Z</time>
      </trkpt>
      <trkpt lat="36.864590" lon="-112.705270">
        <ele>1446.151</ele>
        <time>2018-12-29T00:01:02Z</time>
      </trkpt>
      <trkpt lat="36.864660" lon="-112.705020">
        <ele>1445.901</ele>
        <time>2018-12-29T00:01:22Z</time>
      </trkpt>
      <trkpt lat="36.864730" lon="-112.704750">
        <ele>1445.511</ele>
        <time>2018-12-29T00:01:42Z</time>
      </trkpt>
      <trkpt lat="36.864780" lon="-112.704560">
        <ele>1445.008</ele>
        <time>2018-12-29T00:02:02Z</time>
      </trkpt>
      <trkpt lat="36.864900" lon="-112.704130">
        <ele>1442.988</ele>
        <time>2018-12-29T00:02:22Z</time>
      </trkpt>
      <trkpt lat="36.865050" lon="-112.703520">
        <ele>1440.896</ele>
        <time>2018-12-29T00:02:42Z</time>
      </trkpt>
      <trkpt lat="36.865670" lon="-112.701100">
        <ele>1438.991</ele>
        <time>2018-12-29T00:03:02Z</time>
      </trkpt>
      <trkpt lat="36.866260" lon="-112.698760">
        <ele>1434.262</ele>
        <time>2018-12-29T00:03:22Z</time>
      </trkpt>
      <trkpt lat="36.866680" lon="-112.697090">
        <ele>1427.926</ele>
        <time>2018-12-29T00:03:42Z</time>
      </trkpt>
      <trkpt lat="36.867200" lon="-112.695060">
        <ele>1432.720</ele>
        <time>2018-12-29T00:04:02Z</time>
      </trkpt>
      <trkpt lat="36.867350" lon="-112.694460">
        <ele>1433.559</ele>
        <time>2018-12-29T00:04:22Z</time>
      </trkpt>
      <trkpt lat="36.868800" lon="-112.688660">
        <ele>1443.374</ele>
        <time>2018-12-29T00:04:42Z</time>
      </trkpt>
      <trkpt lat="36.869570" lon="-112.685630">
        <ele>1448.091</ele>
        <time>2018-12-29T00:05:02Z</time>
      </trkpt>
      <trkpt lat="36.870380" lon="-112.682460">
        <ele>1452.781</ele>
        <time>2018-12-29T00:05:22Z</time>
      </trkpt>
      <trkpt lat="36.870950" lon="-112.680230">
        <ele>1452.919</ele>
        <time>2018-12-29T00:05:42Z</time>
      </trkpt>
      <trkpt lat="36.871490" lon="-112.678120">
        <ele>1457.008</ele>
        <time>2018-12-29T00:06:02Z</time>
      </trkpt>
      <trkpt lat="36.872220" lon="-112.675180">
        <ele>1460.872</ele>
        <time>2018-12-29T00:06:22Z</time>
      </trkpt>
      <trkpt lat="36.873240" lon="-112.671190">
        <ele>1450.070</ele>
        <time>2018-12-29T00:06:42Z</time>
      </trkpt>
      <trkpt lat="36.874340" lon="-112.666780">
        <ele>1448.255</ele>
        <time>2018-12-29T00:07:02Z</time>
      </trkpt>
      <trkpt lat="36.877680" lon="-112.653580">
        <ele>1439.586</ele>
        <time>2018-12-29T00:07:22Z</time>
      </trkpt>
      <trkpt lat="36.878270" lon="-112.651250">
        <ele>1431.240</ele>
        <time>2018-12-29T00:07:42Z</time>
      </trkpt>
      <trkpt lat="36.879040" lon="-112.648140">
        <ele>1434.154</ele>
        <time>2018-12-29T00:08:02Z</time>
      </trkpt>
      <trkpt lat="36.879390" lon="-112.646790">
        <ele>1432.833</ele>
        <time>2018-12-29T00:08:22Z</time>
      </trkpt>
      <trkpt lat="36.879570" lon="-112.646120">
        <ele>1431.118</ele>
        <time>2018-12-29T00:08:42Z</time>
      </trkpt>
      <trkpt lat="36.879710" lon="-112.645650">
        <ele>1430.278</ele>
        <time>2018-12-29T00:09:02Z</time>
      </trkpt>
      <trkpt lat="36.879810" lon="-112.645320">
        <ele>1429.833</ele>
        <time>2018-12-29T00:09:22Z</time>
      </trkpt>
      <trkpt lat="36.879890" lon="-112.645070">
        <ele>1429.226</ele>
        <time>2018-12-29T00:09:42Z</time>
      </trkpt>
      <trkpt lat="36.879960" lon="-112.644840">
        <ele>1428.708</ele>
        <time>2018-12-29T00:10:02Z</time>
      </trkpt>
      <trkpt lat="36.880040" lon="-112.644570">
        <ele>1428.190</ele>
        <time>2018-12-29T00:10:22Z</time>
      </trkpt>
      <trkpt lat="36.880140" lon="-112.644280">
        <ele>1427.898</ele>
        <time>2018-12-29T00:10:42Z</time>
      </trkpt>
      <trkpt lat="36.880290" lon="-112.643830">
        <ele>1427.523</ele>
        <time>2018-12-29T00:11:02Z</time>
      </trkpt>
      <trkpt lat="36.880480" lon="-112.643300">
        <ele>1427.354</ele>
        <time>2018-12-29T00:11:22Z</time>
      </trkpt>
      <trkpt lat="36.880600" lon="-112.642960">
        <ele>1427.338</ele>
        <time>2018-12-29T00:11:42Z</time>
      </trkpt>
      <trkpt lat="36.880740" lon="-112.642570">
        <ele>1427.322</ele>
        <time>2018-12-29T00:12:02Z</time>
      </trkpt>
      <trkpt lat="36.880860" lon="-112.642250">
        <ele>1427.211</ele>
        <time>2018-12-29T00:12:22Z</time>
      </trkpt>
      <trkpt lat="36.880980" lon="-112.641930">
        <ele>1426.556</ele>
        <time>2018-12-29T00:12:42Z</time>
      </trkpt>
      <trkpt lat="36.881100" lon="-112.641630">
        <ele>1425.475</ele>
        <time>2018-12-29T00:13:02Z</time>
      </trkpt>
      <trkpt lat="36.881190" lon="-112.641420">
        <ele>1424.728</ele>
        <time>2018-12-29T00:13:22Z</time>
      </trkpt>
      <trkpt lat="36.881250" lon="-112.641260">
        <ele>1424.320</ele>
        <time>2018-12-29T00:13:42Z</time>
      </trkpt>
      <trkpt lat="36.881820" lon="-112.639960">
        <ele>1422.308</ele>
        <time>2018-12-29T00:14:02Z</time>
      </trkpt>
      <trkpt lat="36.883080" lon="-112.637200">
        <ele>1420.060</ele>
        <time>2018-12-29T00:14:22Z</time>
      </trkpt>
      <trkpt lat="36.884540" lon="-112.634020">
        <ele>1419.848</ele>
        <time>2018-12-29T00:14:42Z</time>
      </trkpt>
      <trkpt lat="36.886330" lon="-112.630140">
        <ele>1420.093</ele>
        <time>2018-12-29T00:15:02Z</time>
      </trkpt>
      <trkpt lat="36.888060" lon="-112.626380">
        <ele>1420.744</ele>
        <time>2018-12-29T00:15:22Z</time>
      </trkpt>
      <trkpt lat="36.889110" lon="-112.624100">
        <ele>1419.348</ele>
        <time>2018-12-29T00:15:42Z</time>
      </trkpt>
      <trkpt lat="36.891050" lon="-112.619900">
        <ele>1415.032</ele>
        <time>2018-12-29T00:16:02Z</time>
      </trkpt>
      <trkpt lat="36.891390" lon="-112.619170">
        <ele>1413.861</ele>
        <time>2018-12-29T00:16:22Z</time>
      </trkpt>
      <trkpt lat="36.891650" lon="-112.618620">
        <ele>1412.936</ele>
        <time>2018-12-29T00:16:42Z</time>
      </trkpt>
      <trkpt lat="36.891810" lon="-112.618260">
        <ele>1412.068</ele>
        <time>2018-12-29T00:17:02Z</time>
      </trkpt>
      <trkpt lat="36.891980" lon="-112.617880">
        <ele>1411.342</ele>
        <time>2018-12-29T00:17:22Z</time>
      </trkpt>
      <trkpt lat="36.892180" lon="-112.617440">
        <ele>1410.626</ele>
        <time>2018-12-29T00:17:42Z</time>
      </trkpt>
      <trkpt lat="36.892390" lon="-112.616990">
        <ele>1410.108</ele>
        <time>2018-12-29T00:18:02Z</time>
      </trkpt>
      <trkpt lat="36.892710" lon="-112.616290">
        <ele>1409.429</ele>
        <time>2018-12-29T00:18:22Z</time>
      </trkpt>
      <trkpt lat="36.892910" lon="-112.615840">
        <ele>1409.187</ele>
        <time>2018-12-29T00:18:42Z</time>
      </trkpt>
      <trkpt lat="36.893630" lon="-112.614280">
        <ele>1407.532</ele>
        <time>2018-12-29T00:19:02Z</time>
      </trkpt>
      <trkpt lat="36.894120" lon="-112.613190">
        <ele>1406.113</ele>
        <time>2018-12-29T00:19:22Z</time>
      </trkpt>
      <trkpt lat="36.894650" lon="-112.612060">
        <ele>1405.377</ele>
        <time>2018-12-29T00:19:42Z</time>
      </trkpt>
      <trkpt lat="36.895130" lon="-112.611010">
        <ele>1405.351</ele>
        <time>2018-12-29T00:20:02Z</time>
      </trkpt>
      <trkpt lat="36.896640" lon="-112.607740">
        <ele>1405.620</ele>
        <time>2018-12-29T00:20:22Z</time>
      </trkpt>
      <trkpt lat="36.897570" lon="-112.605710">
        <ele>1406.545</ele>
        <time>2018-12-29T00:20:42Z</time>
      </trkpt>
      <trkpt lat="36.897920" lon="-112.604910">
        <ele>1406.882</ele>
        <time>2018-12-29T00:21:02Z</time>
      </trkpt>
      <trkpt lat="36.898300" lon="-112.604090">
        <ele>1407.343</ele>
        <time>2018-12-29T00:21:22Z</time>
      </trkpt>
      <trkpt lat="36.898450" lon="-112.603790">
        <ele>1407.817</ele>
        <time>2018-12-29T00:21:42Z</time>
      </trkpt>
      <trkpt lat="36.899010" lon="-112.602720">
        <ele>1409.108</ele>
        <time>2018-12-29T00:22:02Z</time>
      </trkpt>
      <trkpt lat="36.899340" lon="-112.602140">
        <ele>1409.881</ele>
        <time>2018-12-29T00:22:22Z</time>
      </trkpt>
      <trkpt lat="36.899740" lon="-112.601420">
        <ele>1412.359</ele>
        <time>2018-12-29T00:22:42Z</time>
      </trkpt>
      <trkpt lat="36.900200" lon="-112.600620">
        <ele>1415.264</ele>
        <time>2018-12-29T00:23:02Z</time>
      </trkpt>
      <trkpt lat="36.900650" lon="-112.599920">
        <ele>1415.625</ele>
        <time>2018-12-29T00:23:22Z</time>
      </trkpt>
      <trkpt lat="36.901320" lon="-112.598900">
        <ele>1419.359</ele>
        <time>2018-12-29T00:23:42Z</time>
      </trkpt>
      <trkpt lat="36.901760" lon="-112.598270">
        <ele>1421.393</ele>
        <time>2018-12-29T00:24:02Z</time>
      </trkpt>
      <trkpt lat="36.902450" lon="-112.597340">
        <ele>1424.882</ele>
        <time>2018-12-29T00:24:22Z</time>
      </trkpt>
      <trkpt lat="36.903170" lon="-112.596410">
        <ele>1427.317</ele>
        <time>2018-12-29T00:24:42Z</time>
      </trkpt>
      <trkpt lat="36.904410" lon="-112.594780">
        <ele>1432.196</ele>
        <time>2018-12-29T00:25:02Z</time>
      </trkpt>
      <trkpt lat="36.905080" lon="-112.593940">
        <ele>1428.831</ele>
        <time>2018-12-29T00:25:22Z</time>
      </trkpt>
      <trkpt lat="36.906870" lon="-112.591610">
        <ele>1430.224</ele>
        <time>2018-12-29T00:25:42Z</time>
      </trkpt>
      <trkpt lat="36.907540" lon="-112.590720">
        <ele>1431.308</ele>
        <time>2018-12-29T00:26:02Z</time>
      </trkpt>
      <trkpt lat="36.908030" lon="-112.590100">
        <ele>1428.262</ele>
        <time>2018-12-29T00:26:22Z</time>
      </trkpt>
      <trkpt lat="36.908960" lon="-112.588890">
        <ele>1424.630</ele>
        <time>2018-12-29T00:26:42Z</time>
      </trkpt>
      <trkpt lat="36.909270" lon="-112.588500">
        <ele>1423.245</ele>
        <time>2018-12-29T00:27:02Z</time>
      </trkpt>
      <trkpt lat="36.910100" lon="-112.587410">
        <ele>1421.726</ele>
        <time>2018-12-29T00:27:22Z</time>
      </trkpt>
      <trkpt lat="36.910740" lon="-112.586610">
        <ele>1417.360</ele>
        <time>2018-12-29T00:27:42Z</time>
      </trkpt>
      <trkpt lat="36.911750" lon="-112.585270">
        <ele>1418.234</ele>
        <time>2018-12-29T00:28:02Z</time>
      </trkpt>
      <trkpt lat="36.913510" lon="-112.582970">
        <ele>1418.693</ele>
        <time>2018-12-29T00:28:22Z</time>
      </trkpt>
      <trkpt lat="36.918780" lon="-112.576120">
        <ele>1420.338</ele>
        <time>2018-12-29T00:28:42Z</time>
      </trkpt>
      <trkpt lat="36.922560" lon="-112.571210">
        <ele>1419.033</ele>
        <time>2018-12-29T00:29:02Z</time>
      </trkpt>
      <trkpt lat="36.926620" lon="-112.565950">
        <ele>1416.123</ele>
        <time>2018-12-29T00:29:22Z</time>
      </trkpt>
      <trkpt lat="36.926700" lon="-112.565840">
        <ele>1415.915</ele>
        <time>2018-12-29T00:29:42Z</time>
      </trkpt>
      <trkpt lat="36.928170" lon="-112.563930">
        <ele>1410.108</ele>
        <time>2018-12-29T00:30:02Z</time>
      </trkpt>
      <trkpt lat="36.931370" lon="-112.559760">
        <ele>1421.256</ele>
        <time>2018-12-29T00:30:22Z</time>
      </trkpt>
      <trkpt lat="36.932340" lon="-112.558500">
        <ele>1421.564</ele>
        <time>2018-12-29T00:30:42Z</time>
      </trkpt>
      <trkpt lat="36.935480" lon="-112.554430">
        <ele>1422.449</ele>
        <time>2018-12-29T00:31:02Z</time>
      </trkpt>
      <trkpt lat="36.936890" lon="-112.552590">
        <ele>1420.660</ele>
        <time>2018-12-29T00:31:22Z</time>
      </trkpt>
      <trkpt lat="36.939230" lon="-112.549550">
        <ele>1419.814</ele>
        <time>2018-12-29T00:31:42Z</time>
      </trkpt>
      <trkpt lat="36.940340" lon="-112.548100">
        <ele>1421.218</ele>
        <time>2018-12-29T00:32:02Z</time>
      </trkpt>
      <trkpt lat="36.940560" lon="-112.547820">
        <ele>1421.317</ele>
        <time>2018-12-29T00:32:22Z</time>
      </trkpt>
      <trkpt lat="36.941060" lon="-112.547180">
        <ele>1421.372</ele>
        <time>2018-12-29T00:32:42Z</time>
      </trkpt>
      <trkpt lat="36.941190" lon="-112.547010">
        <ele>1421.545</ele>
        <time>2018-12-29T00:33:02Z</time>
      </trkpt>
      <trkpt lat="36.941500" lon="-112.546590">
        <ele>1421.847</ele>
        <time>2018-12-29T00:33:22Z</time>
      </trkpt>
      <trkpt lat="36.941770" lon="-112.546210">
        <ele>1422.111</ele>
        <time>2018-12-29T00:33:42Z</time>
      </trkpt>
      <trkpt lat="36.941950" lon="-112.545950">
        <ele>1421.908</ele>
        <time>2018-12-29T00:34:02Z</time>
      </trkpt>
      <trkpt lat="36.942330" lon="-112.545370">
        <ele>1421.887</ele>
        <time>2018-12-29T00:34:22Z</time>
      </trkpt>
      <trkpt lat="36.942710" lon="-112.544730">
        <ele>1421.895</ele>
        <time>2018-12-29T00:34:42Z</time>
      </trkpt>
      <trkpt lat="36.942940" lon="-112.544330">
        <ele>1421.920</ele>
        <time>2018-12-29T00:35:02Z</time>
      </trkpt>
      <trkpt lat="36.943240" lon="-112.543750">
        <ele>1421.841</ele>
        <time>2018-12-29T00:35:22Z</time>
      </trkpt>
      <trkpt lat="36.943490" lon="-112.543220">
        <ele>1421.735</ele>
        <time>2018-12-29T00:35:42Z</time>
      </trkpt>
      <trkpt lat="36.943920" lon="-112.542260">
        <ele>1421.899</ele>
        <time>2018-12-29T00:36:02Z</time>
      </trkpt>
      <trkpt lat="36.944080" lon="-112.541850">
        <ele>1421.748</ele>
        <time>2018-12-29T00:36:22Z</time>
      </trkpt>
      <trkpt lat="36.944140" lon="-112.541710">
        <ele>1421.763</ele>
        <time>2018-12-29T00:36:42Z</time>
      </trkpt>
      <trkpt lat="36.944200" lon="-112.541530">
        <ele>1421.761</ele>
        <time>2018-12-29T00:37:02Z</time>
      </trkpt>
      <trkpt lat="36.944300" lon="-112.541250">
        <ele>1421.821</ele>
        <time>2018-12-29T00:37:22Z</time>
      </trkpt>
      <trkpt lat="36.944360" lon="-112.541100">
        <ele>1421.713</ele>
        <time>2018-12-29T00:37:42Z</time>
      </trkpt>
      <trkpt lat="36.944420" lon="-112.540920">
        <ele>1421.708</ele>
        <time>2018-12-29T00:38:02Z</time>
      </trkpt>
      <trkpt lat="36.944590" lon="-112.540370">
        <ele>1421.989</ele>
        <time>2018-12-29T00:38:22Z</time>
      </trkpt>
      <trkpt lat="36.944800" lon="-112.539640">
        <ele>1421.897</ele>
        <time>2018-12-29T00:38:42Z</time>
      </trkpt>
      <trkpt lat="36.944930" lon="-112.539140">
        <ele>1421.882</ele>
        <time>2018-12-29T00:39:02Z</time>
      </trkpt>
      <trkpt lat="36.945000" lon="-112.538860">
        <ele>1421.923</ele>
        <time>2018-12-29T00:39:22Z</time>
      </trkpt>
      <trkpt lat="36.945210" lon="-112.537920">
        <ele>1422.267</ele>
        <time>2018-12-29T00:39:42Z</time>
      </trkpt>
      <trkpt lat="36.945280" lon="-112.537510">
        <ele>1422.051</ele>
        <time>2018-12-29T00:40:02Z</time>
      </trkpt>
      <trkpt lat="36.945330" lon="-112.537210">
        <ele>1421.920</ele>
        <time>2018-12-29T00:40:22Z</time>
      </trkpt>
      <trkpt lat="36.945390" lon="-112.536760">
        <ele>1420.225</ele>
        <time>2018-12-29T00:40:42Z</time>
      </trkpt>
      <trkpt lat="36.945470" lon="-112.536170">
        <ele>1421.633</ele>
        <time>2018-12-29T00:41:02Z</time>
      </trkpt>
      <trkpt lat="36.945520" lon="-112.535730">
        <ele>1424.023</ele>
        <time>2018-12-29T00:41:22Z</time>
      </trkpt>
      <trkpt lat="36.945530" lon="-112.535600">
        <ele>1424.715</ele>
        <time>2018-12-29T00:41:42Z</time>
      </trkpt>
      <trkpt lat="36.945550" lon="-112.535390">
        <ele>1425.808</ele>
        <time>2018-12-29T00:42:02Z</time>
      </trkpt>
      <trkpt lat="36.945590" lon="-112.534940">
        <ele>1427.076</ele>
        <time>2018-12-29T00:42:22Z</time>
      </trkpt>
      <trkpt lat="36.945590" lon="-112.534860">
        <ele>1427.024</ele>
        <time>2018-12-29T00:42:42Z</time>
      </trkpt>
      <trkpt lat="36.945600" lon="-112.534640">
        <ele>1427.069</ele>
        <time>2018-12-29T00:43:02Z</time>
      </trkpt>
      <trkpt lat="36.945620" lon="-112.534080">
        <ele>1427.090</ele>
        <time>2018-12-29T00:43:22Z</time>
      </trkpt>
      <trkpt lat="36.945640" lon="-112.533450">
        <ele>1426.734</ele>
        <time>2018-12-29T00:43:42Z</time>
      </trkpt>
      <trkpt lat="36.945640" lon="-112.533220">
        <ele>1426.518</ele>
        <time>2018-12-29T00:44:02Z</time>
      </trkpt>
      <trkpt lat="36.945630" lon="-112.532890">
        <ele>1426.417</ele>
        <time>2018-12-29T00:44:22Z</time>
      </trkpt>
      <trkpt lat="36.945630" lon="-112.532170">
        <ele>1425.542</ele>
        <time>2018-12-29T00:44:42Z</time>
      </trkpt>
      <trkpt lat="36.945630" lon="-112.531290">
        <ele>1424.312</ele>
        <time>2018-12-29T00:45:02Z</time>
      </trkpt>
      <trkpt lat="36.945630" lon="-112.530740">
        <ele>1423.532</ele>
        <time>2018-12-29T00:45:22Z</time>
      </trkpt>
      <trkpt lat="36.945630" lon="-112.530640">
        <ele>1423.405</ele>
        <time>2018-12-29T00:45:42Z</time>
      </trkpt>
      <trkpt lat="36.945630" lon="-112.530070">
        <ele>1423.408</ele>
        <time>2018-12-29T00:46:02Z</time>
      </trkpt>
      <trkpt lat="36.945640" lon="-112.529270">
        <ele>1423.384</ele>
        <time>2018-12-29T00:46:22Z</time>
      </trkpt>
      <trkpt lat="36.945650" lon="-112.528580">
        <ele>1423.472</ele>
        <time>2018-12-29T00:46:42Z</time>
      </trkpt>
      <trkpt lat="36.945640" lon="-112.528020">
        <ele>1423.687</ele>
        <time>2018-12-29T00:47:02Z</time>
      </trkpt>
      <trkpt lat="36.945650" lon="-112.527320">
        <ele>1423.828</ele>
        <time>2018-12-29T00:47:22Z</time>
      </trkpt>
      <trkpt lat="36.945640" lon="-112.526450">
        <ele>1424.032</ele>
        <time>2018-12-29T00:47:42Z</time>
      </trkpt>
      <trkpt lat="36.945643" lon="-112.526452">
        <ele>1424.026</ele>
        <time>2018-12-29T00:48:02Z</time>
      </trkpt>
      <trkpt lat="36.946190" lon="-112.526420">
        <ele>1424.695</ele>
        <time>2018-12-29T00:48:22Z</time>
      </trkpt>
      <trkpt lat="36.947370" lon="-112.526430">
        <ele>1425.410</ele>
        <time>2018-12-29T00:48:42Z</time>
      </trkpt>
      <trkpt lat="36.949160" lon="-112.526430">
        <ele>1426.659</ele>
        <time>2018-12-29T00:49:02Z</time>
      </trkpt>
      <trkpt lat="36.950220" lon="-112.526430">
        <ele>1427.203</ele>
        <time>2018-12-29T00:49:22Z</time>
      </trkpt>
      <trkpt lat="36.950840" lon="-112.526420">
        <ele>1427.723</ele>
        <time>2018-12-29T00:49:42Z</time>
      </trkpt>
      <trkpt lat="36.951560" lon="-112.526430">
        <ele>1428.408</ele>
        <time>2018-12-29T00:50:02Z</time>
      </trkpt>
      <trkpt lat="36.952530" lon="-112.526420">
        <ele>1429.318</ele>
        <time>2018-12-29T00:50:22Z</time>
      </trkpt>
      <trkpt lat="36.953060" lon="-112.526430">
        <ele>1429.586</ele>
        <time>2018-12-29T00:50:42Z</time>
      </trkpt>
      <trkpt lat="36.953860" lon="-112.526460">
        <ele>1429.571</ele>
        <time>2018-12-29T00:51:02Z</time>
      </trkpt>
      <trkpt lat="36.954070" lon="-112.526500">
        <ele>1429.592</ele>
        <time>2018-12-29T00:51:22Z</time>
      </trkpt>
      <trkpt lat="36.954600" lon="-112.526620">
        <ele>1429.936</ele>
        <time>2018-12-29T00:51:42Z</time>
      </trkpt>
      <trkpt lat="36.954780" lon="-112.526670">
        <ele>1430.080</ele>
        <time>2018-12-29T00:52:02Z</time>
      </trkpt>
      <trkpt lat="36.955520" lon="-112.526860">
        <ele>1429.979</ele>
        <time>2018-12-29T00:52:22Z</time>
      </trkpt>
      <trkpt lat="36.955810" lon="-112.526930">
        <ele>1430.084</ele>
        <time>2018-12-29T00:52:42Z</time>
      </trkpt>
      <trkpt lat="36.956070" lon="-112.526980">
        <ele>1430.198</ele>
        <time>2018-12-29T00:53:02Z</time>
      </trkpt>
      <trkpt lat="36.956160" lon="-112.527000">
        <ele>1430.115</ele>
        <time>2018-12-29T00:53:22Z</time>
      </trkpt>
      <trkpt lat="36.956320" lon="-112.527010">
        <ele>1430.126</ele>
        <time>2018-12-29T00:53:42Z</time>
      </trkpt>
      <trkpt lat="36.956370" lon="-112.527020">
        <ele>1430.108</ele>
        <time>2018-12-29T00:54:02Z</time>
      </trkpt>
      <trkpt lat="36.956510" lon="-112.527040">
        <ele>1430.242</ele>
        <time>2018-12-29T00:54:22Z</time>
      </trkpt>
      <trkpt lat="36.956880" lon="-112.527040">
        <ele>1430.360</ele>
        <time>2018-12-29T00:54:42Z</time>
      </trkpt>
      <trkpt lat="36.957090" lon="-112.527040">
        <ele>1430.455</ele>
        <time>2018-12-29T00:55:02Z</time>
      </trkpt>
      <trkpt lat="36.957180" lon="-112.527040">
        <ele>1430.536</ele>
        <time>2018-12-29T00:55:22Z</time>
      </trkpt>
      <trkpt lat="36.957480" lon="-112.527020">
        <ele>1430.660</ele>
        <time>2018-12-29T00:55:42Z</time>
      </trkpt>
      <trkpt lat="36.957860" lon="-112.527020">
        <ele>1430.834</ele>
        <time>2018-12-29T00:56:02Z</time>
      </trkpt>
      <trkpt lat="36.958610" lon="-112.527010">
        <ele>1431.183</ele>
        <time>2018-12-29T00:56:22Z</time>
      </trkpt>
      <trkpt lat="36.959200" lon="-112.527010">
        <ele>1431.438</ele>
        <time>2018-12-29T00:56:42Z</time>
      </trkpt>
      <trkpt lat="36.959510" lon="-112.527000">
        <ele>1431.682</ele>
        <time>2018-12-29T00:57:02Z</time>
      </trkpt>
      <trkpt lat="36.960670" lon="-112.526970">
        <ele>1432.943</ele>
        <time>2018-12-29T00:57:22Z</time>
      </trkpt>
      <trkpt lat="36.960980" lon="-112.526960">
        <ele>1433.217</ele>
        <time>2018-12-29T00:57:42Z</time>
      </trkpt>
      <trkpt lat="36.961390" lon="-112.526940">
        <ele>1433.608</ele>
        <time>2018-12-29T00:58:02Z</time>
      </trkpt>
      <trkpt lat="36.961880" lon="-112.526940">
        <ele>1433.951</ele>
        <time>2018-12-29T00:58:22Z</time>
      </trkpt>
      <trkpt lat="36.962340" lon="-112.526940">
        <ele>1434.269</ele>
        <time>2018-12-29T00:58:42Z</time>
      </trkpt>
      <trkpt lat="36.963420" lon="-112.526950">
        <ele>1432.654</ele>
        <time>2018-12-29T00:59:02Z</time>
      </trkpt>
      <trkpt lat="36.963460" lon="-112.526950">
        <ele>1432.465</ele>
        <time>2018-12-29T00:59:22Z</time>
      </trkpt>
      <trkpt lat="36.963910" lon="-112.526960">
        <ele>1434.499</ele>
        <time>2018-12-29T00:59:42Z</time>
      </trkpt>
      <trkpt lat="36.964600" lon="-112.526960">
        <ele>1437.453</ele>
        <time>2018-12-29T01:00:02Z</time>
      </trkpt>
      <trkpt lat="36.965070" lon="-112.526940">
        <ele>1439.462</ele>
        <time>2018-12-29T01:00:22Z</time>
      </trkpt>
      <trkpt lat="36.966690" lon="-112.526940">
        <ele>1439.617</ele>
        <time>2018-12-29T01:00:42Z</time>
      </trkpt>
      <trkpt lat="36.967620" lon="-112.527010">
        <ele>1440.094</ele>
        <time>2018-12-29T01:01:02Z</time>
      </trkpt>
      <trkpt lat="36.968130" lon="-112.527070">
        <ele>1440.957</ele>
        <time>2018-12-29T01:01:22Z</time>
      </trkpt>
      <trkpt lat="36.968550" lon="-112.527110">
        <ele>1441.722</ele>
        <time>2018-12-29T01:01:42Z</time>
      </trkpt>
      <trkpt lat="36.969310" lon="-112.527240">
        <ele>1443.408</ele>
        <time>2018-12-29T01:02:02Z</time>
      </trkpt>
      <trkpt lat="36.969580" lon="-112.527290">
        <ele>1443.782</ele>
        <time>2018-12-29T01:02:22Z</time>
      </trkpt>
      <trkpt lat="36.970270" lon="-112.527420">
        <ele>1443.630</ele>
        <time>2018-12-29T01:02:42Z</time>
      </trkpt>
      <trkpt lat="36.971670" lon="-112.527640">
        <ele>1443.515</ele>
        <time>2018-12-29T01:03:02Z</time>
      </trkpt>
      <trkpt lat="36.971960" lon="-112.527690">
        <ele>1443.586</ele>
        <time>2018-12-29T01:03:22Z</time>
      </trkpt>
      <trkpt lat="36.972550" lon="-112.527790">
        <ele>1443.610</ele>
        <time>2018-12-29T01:03:42Z</time>
      </trkpt>
      <trkpt lat="36.973260" lon="-112.527910">
        <ele>1443.964</ele>
        <time>2018-12-29T01:04:02Z</time>
      </trkpt>
      <trkpt lat="36.973370" lon="-112.527930">
        <ele>1443.943</ele>
        <time>2018-12-29T01:04:22Z</time>
      </trkpt>
      <trkpt lat="36.974330" lon="-112.528110">
        <ele>1444.698</ele>
        <time>2018-12-29T01:04:42Z</time>
      </trkpt>
      <trkpt lat="36.974870" lon="-112.528200">
        <ele>1445.449</ele>
        <time>2018-12-29T01:05:02Z</time>
      </trkpt>
      <trkpt lat="36.975480" lon="-112.528300">
        <ele>1445.602</ele>
        <time>2018-12-29T01:05:22Z</time>
      </trkpt>
      <trkpt lat="36.975930" lon="-112.528360">
        <ele>1445.922</ele>
        <time>2018-12-29T01:05:42Z</time>
      </trkpt>
      <trkpt lat="36.976870" lon="-112.528530">
        <ele>1448.808</ele>
        <time>2018-12-29T01:06:02Z</time>
      </trkpt>
      <trkpt lat="36.977570" lon="-112.528670">
        <ele>1450.747</ele>
        <time>2018-12-29T01:06:22Z</time>
      </trkpt>
      <trkpt lat="36.980070" lon="-112.529120">
        <ele>1451.825</ele>
        <time>2018-12-29T01:06:42Z</time>
      </trkpt>
      <trkpt lat="36.980200" lon="-112.529140">
        <ele>1451.850</ele>
        <time>2018-12-29T01:07:02Z</time>
      </trkpt>
      <trkpt lat="36.980790" lon="-112.529250">
        <ele>1452.111</ele>
        <time>2018-12-29T01:07:22Z</time>
      </trkpt>
      <trkpt lat="36.981950" lon="-112.529410">
        <ele>1454.065</ele>
        <time>2018-12-29T01:07:42Z</time>
      </trkpt>
      <trkpt lat="36.982090" lon="-112.529420">
        <ele>1454.289</ele>
        <time>2018-12-29T01:08:02Z</time>
      </trkpt>
      <trkpt lat="36.982420" lon="-112.529480">
        <ele>1454.658</ele>
        <time>2018-12-29T01:08:22Z</time>
      </trkpt>
      <trkpt lat="36.982760" lon="-112.529520">
        <ele>1455.283</ele>
        <time>2018-12-29T01:08:42Z</time>
      </trkpt>
      <trkpt lat="36.983240" lon="-112.529610">
        <ele>1456.194</ele>
        <time>2018-12-29T01:09:02Z</time>
      </trkpt>
      <trkpt lat="36.985730" lon="-112.529980">
        <ele>1463.557</ele>
        <time>2018-12-29T01:09:22Z</time>
      </trkpt>
      <trkpt lat="36.986370" lon="-112.530060">
        <ele>1464.422</ele>
        <time>2018-12-29T01:09:42Z</time>
      </trkpt>
      <trkpt lat="36.986920" lon="-112.530130">
        <ele>1466.208</ele>
        <time>2018-12-29T01:10:02Z</time>
      </trkpt>
      <trkpt lat="36.988160" lon="-112.530300">
        <ele>1470.872</ele>
        <time>2018-12-29T01:10:22Z</time>
      </trkpt>
      <trkpt lat="36.988780" lon="-112.530390">
        <ele>1471.610</ele>
        <time>2018-12-29T01:10:42Z</time>
      </trkpt>
      <trkpt lat="36.989840" lon="-112.530530">
        <ele>1473.395</ele>
        <time>2018-12-29T01:11:02Z</time>
      </trkpt>
      <trkpt lat="36.990320" lon="-112.530610">
        <ele>1475.846</ele>
        <time>2018-12-29T01:11:22Z</time>
      </trkpt>
      <trkpt lat="36.990520" lon="-112.530630">
        <ele>1476.580</ele>
        <time>2018-12-29T01:11:42Z</time>
      </trkpt>
      <trkpt lat="36.990980" lon="-112.530680">
        <ele>1477.684</ele>
        <time>2018-12-29T01:12:02Z</time>
      </trkpt>
      <trkpt lat="36.991140" lon="-112.530690">
        <ele>1478.243</ele>
        <time>2018-12-29T01:12:22Z</time>
      </trkpt>
      <trkpt lat="36.991340" lon="-112.530710">
        <ele>1478.838</ele>
        <time>2018-12-29T01:12:42Z</time>
      </trkpt>
      <trkpt lat="36.991820" lon="-112.530770">
        <ele>1480.188</ele>
        <time>2018-12-29T01:13:02Z</time>
      </trkpt>
      <trkpt lat="36.992130" lon="-112.530780">
        <ele>1479.524</ele>
        <time>2018-12-29T01:13:22Z</time>
      </trkpt>
      <trkpt lat="36.992330" lon="-112.530780">
        <ele>1478.226</ele>
        <time>2018-12-29T01:13:42Z</time>
      </trkpt>
      <trkpt lat="36.992490" lon="-112.530780">
        <ele>1477.508</ele>
        <time>2018-12-29T01:14:02Z</time>
      </trkpt>
      <trkpt lat="36.992900" lon="-112.530740">
        <ele>1476.071</ele>
        <time>2018-12-29T01:14:22Z</time>
      </trkpt>
      <trkpt lat="36.993500" lon="-112.530670">
        <ele>1474.639</ele>
        <time>2018-12-29T01:14:42Z</time>
      </trkpt>
      <trkpt lat="36.993820" lon="-112.530630">
        <ele>1474.214</ele>
        <time>2018-12-29T01:15:02Z</time>
      </trkpt>
      <trkpt lat="36.994030" lon="-112.530590">
        <ele>1473.315</ele>
        <time>2018-12-29T01:15:22Z</time>
      </trkpt>
      <trkpt lat="36.994260" lon="-112.530570">
        <ele>1471.979</ele>
        <time>2018-12-29T01:15:42Z</time>
      </trkpt>
      <trkpt lat="36.994470" lon="-112.530550">
        <ele>1470.783</ele>
        <time>2018-12-29T01:16:02Z</time>
      </trkpt>
      <trkpt lat="36.995270" lon="-112.530450">
        <ele>1468.162</ele>
        <time>2018-12-29T01:16:22Z</time>
      </trkpt>
      <trkpt lat="36.997350" lon="-112.530170">
        <ele>1463.987</ele>
        <time>2018-12-29T01:16:42Z</time>
      </trkpt>
      <trkpt lat="36.997670" lon="-112.530140">
        <ele>1464.546</ele>
        <time>2018-12-29T01:17:02Z</time>
      </trkpt>
      <trkpt lat="36.998000" lon="-112.530090">
        <ele>1465.888</ele>
        <time>2018-12-29T01:17:22Z</time>
      </trkpt>
      <trkpt lat="36.998440" lon="-112.530030">
        <ele>1467.316</ele>
        <time>2018-12-29T01:17:42Z</time>
      </trkpt>
      <trkpt lat="37.000070" lon="-112.529840">
        <ele>1471.508</ele>
        <time>2018-12-29T01:18:02Z</time>
      </trkpt>
      <trkpt lat="37.000510" lon="-112.529780">
        <ele>1470.187</ele>
        <time>2018-12-29T01:18:22Z</time>
      </trkpt>
      <trkpt lat="37.000680" lon="-112.529760">
        <ele>1468.935</ele>
        <time>2018-12-29T01:18:42Z</time>
      </trkpt>
      <trkpt lat="37.000910" lon="-112.529740">
        <ele>1469.580</ele>
        <time>2018-12-29T01:19:02Z</time>
      </trkpt>
      <trkpt lat="37.001970" lon="-112.529590">
        <ele>1477.651</ele>
        <time>2018-12-29T01:19:22Z</time>
      </trkpt>
      <trkpt lat="37.002420" lon="-112.529540">
        <ele>1479.865</ele>
        <time>2018-12-29T01:19:42Z</time>
      </trkpt>
      <trkpt lat="37.003390" lon="-112.529450">
        <ele>1480.559</ele>
        <time>2018-12-29T01:20:02Z</time>
      </trkpt>
      <trkpt lat="37.003680" lon="-112.529420">
        <ele>1480.138</ele>
        <time>2018-12-29T01:20:22Z</time>
      </trkpt>
      <trkpt lat="37.004180" lon="-112.529330">
        <ele>1479.013</ele>
        <time>2018-12-29T01:20:42Z</time>
      </trkpt>
      <trkpt lat="37.004390" lon="-112.529270">
        <ele>1478.653</ele>
        <time>2018-12-29T01:21:02Z</time>
      </trkpt>
      <trkpt lat="37.004570" lon="-112.529220">
        <ele>1478.304</ele>
        <time>2018-12-29T01:21:22Z</time>
      </trkpt>
      <trkpt lat="37.004890" lon="-112.529110">
        <ele>1477.914</ele>
        <time>2018-12-29T01:21:42Z</time>
      </trkpt>
      <trkpt lat="37.004960" lon="-112.529090">
        <ele>1477.708</ele>
        <time>2018-12-29T01:22:02Z</time>
      </trkpt>
      <trkpt lat="37.005030" lon="-112.529060">
        <ele>1477.698</ele>
        <time>2018-12-29T01:22:22Z</time>
      </trkpt>
      <trkpt lat="37.005170" lon="-112.529010">
        <ele>1477.326</ele>
        <time>2018-12-29T01:22:42Z</time>
      </trkpt>
      <trkpt lat="37.005300" lon="-112.528950">
        <ele>1477.261</ele>
        <time>2018-12-29T01:23:02Z</time>
      </trkpt>
      <trkpt lat="37.005580" lon="-112.528840">
        <ele>1477.092</ele>
        <time>2018-12-29T01:23:22Z</time>
      </trkpt>
      <trkpt lat="37.005650" lon="-112.528810">
        <ele>1477.086</ele>
        <time>2018-12-29T01:23:42Z</time>
      </trkpt>
      <trkpt lat="37.005760" lon="-112.528750">
        <ele>1477.050</ele>
        <time>2018-12-29T01:24:02Z</time>
      </trkpt>
      <trkpt lat="37.005870" lon="-112.528700">
        <ele>1477.089</ele>
        <time>2018-12-29T01:24:22Z</time>
      </trkpt>
      <trkpt lat="37.006260" lon="-112.528520">
        <ele>1477.214</ele>
        <time>2018-12-29T01:24:42Z</time>
      </trkpt>
      <trkpt lat="37.006350" lon="-112.528480">
        <ele>1477.338</ele>
        <time>2018-12-29T01:25:02Z</time>
      </trkpt>
      <trkpt lat="37.007060" lon="-112.528140">
        <ele>1477.270</ele>
        <time>2018-12-29T01:25:22Z</time>
      </trkpt>
      <trkpt lat="37.009170" lon="-112.527140">
        <ele>1476.217</ele>
        <time>2018-12-29T01:25:42Z</time>
      </trkpt>
      <trkpt lat="37.010030" lon="-112.526730">
        <ele>1476.308</ele>
        <time>2018-12-29T01:26:02Z</time>
      </trkpt>
      <trkpt lat="37.011850" lon="-112.525860">
        <ele>1476.326</ele>
        <time>2018-12-29T01:26:22Z</time>
      </trkpt>
      <trkpt lat="37.012760" lon="-112.525430">
        <ele>1478.174</ele>
        <time>2018-12-29T01:26:42Z</time>
      </trkpt>
      <trkpt lat="37.013250" lon="-112.525230">
        <ele>1479.029</ele>
        <time>2018-12-29T01:27:02Z</time>
      </trkpt>
      <trkpt lat="37.013570" lon="-112.525120">
        <ele>1479.290</ele>
        <time>2018-12-29T01:27:22Z</time>
      </trkpt>
      <trkpt lat="37.013800" lon="-112.525060">
        <ele>1479.354</ele>
        <time>2018-12-29T01:27:42Z</time>
      </trkpt>
      <trkpt lat="37.013920" lon="-112.525040">
        <ele>1479.468</ele>
        <time>2018-12-29T01:28:02Z</time>
      </trkpt>
      <trkpt lat="37.014010" lon="-112.525020">
        <ele>1479.527</ele>
        <time>2018-12-29T01:28:22Z</time>
      </trkpt>
      <trkpt lat="37.014170" lon="-112.524990">
        <ele>1479.682</ele>
        <time>2018-12-29T01:28:42Z</time>
      </trkpt>
      <trkpt lat="37.014250" lon="-112.524990">
        <ele>1479.799</ele>
        <time>2018-12-29T01:29:02Z</time>
      </trkpt>
      <trkpt lat="37.014460" lon="-112.524980">
        <ele>1480.007</ele>
        <time>2018-12-29T01:29:22Z</time>
      </trkpt>
      <trkpt lat="37.014600" lon="-112.524980">
        <ele>1480.227</ele>
        <time>2018-12-29T01:29:42Z</time>
      </trkpt>
      <trkpt lat="37.015000" lon="-112.524980">
        <ele>1480.608</ele>
        <time>2018-12-29T01:30:02Z</time>
      </trkpt>
      <trkpt lat="37.016330" lon="-112.524960">
        <ele>1481.612</ele>
        <time>2018-12-29T01:30:22Z</time>
      </trkpt>
      <trkpt lat="37.018330" lon="-112.524920">
        <ele>1483.120</ele>
        <time>2018-12-29T01:30:42Z</time>
      </trkpt>
      <trkpt lat="37.019740" lon="-112.524920">
        <ele>1483.655</ele>
        <time>2018-12-29T01:31:02Z</time>
      </trkpt>
      <trkpt lat="37.020420" lon="-112.524910">
        <ele>1483.886</ele>
        <time>2018-12-29T01:31:22Z</time>
      </trkpt>
      <trkpt lat="37.021630" lon="-112.524860">
        <ele>1484.910</ele>
        <time>2018-12-29T01:31:42Z</time>
      </trkpt>
      <trkpt lat="37.023090" lon="-112.524830">
        <ele>1486.114</ele>
        <time>2018-12-29T01:32:02Z</time>
      </trkpt>
      <trkpt lat="37.023390" lon="-112.524830">
        <ele>1486.533</ele>
        <time>2018-12-29T01:32:22Z</time>
      </trkpt>
      <trkpt lat="37.024260" lon="-112.524820">
        <ele>1488.298</ele>
        <time>2018-12-29T01:32:42Z</time>
      </trkpt>
      <trkpt lat="37.024850" lon="-112.524820">
        <ele>1488.453</ele>
        <time>2018-12-29T01:33:02Z</time>
      </trkpt>
      <trkpt lat="37.026240" lon="-112.524820">
        <ele>1490.104</ele>
        <time>2018-12-29T01:33:22Z</time>
      </trkpt>
      <trkpt lat="37.026570" lon="-112.524830">
        <ele>1490.614</ele>
        <time>2018-12-29T01:33:42Z</time>
      </trkpt>
      <trkpt lat="37.027550" lon="-112.524830">
        <ele>1492.308</ele>
        <time>2018-12-29T01:34:02Z</time>
      </trkpt>
      <trkpt lat="37.028810" lon="-112.524820">
        <ele>1493.988</ele>
        <time>2018-12-29T01:34:22Z</time>
      </trkpt>
      <trkpt lat="37.029130" lon="-112.524810">
        <ele>1494.266</ele>
        <time>2018-12-29T01:34:42Z</time>
      </trkpt>
      <trkpt lat="37.029390" lon="-112.524810">
        <ele>1494.611</ele>
        <time>2018-12-29T01:35:02Z</time>
      </trkpt>
      <trkpt lat="37.029840" lon="-112.524810">
        <ele>1495.132</ele>
        <time>2018-12-29T01:35:22Z</time>
      </trkpt>
      <trkpt lat="37.030050" lon="-112.524820">
        <ele>1495.346</ele>
        <time>2018-12-29T01:35:42Z</time>
      </trkpt>
      <trkpt lat="37.030750" lon="-112.524800">
        <ele>1495.820</ele>
        <time>2018-12-29T01:36:02Z</time>
      </trkpt>
      <trkpt lat="37.031860" lon="-112.524790">
        <ele>1497.019</ele>
        <time>2018-12-29T01:36:22Z</time>
      </trkpt>
      <trkpt lat="37.032740" lon="-112.524800">
        <ele>1497.614</ele>
        <time>2018-12-29T01:36:42Z</time>
      </trkpt>
      <trkpt lat="37.032990" lon="-112.524800">
        <ele>1497.731</ele>
        <time>2018-12-29T01:37:02Z</time>
      </trkpt>
      <trkpt lat="37.034240" lon="-112.524790">
        <ele>1498.561</ele>
        <time>2018-12-29T01:37:22Z</time>
      </trkpt>
      <trkpt lat="37.034930" lon="-112.524790">
        <ele>1498.707</ele>
        <time>2018-12-29T01:37:42Z</time>
      </trkpt>
      <trkpt lat="37.035630" lon="-112.524790">
        <ele>1498.808</ele>
        <time>2018-12-29T01:38:02Z</time>
      </trkpt>
      <trkpt lat="37.036360" lon="-112.524850">
        <ele>1498.746</ele>
        <time>2018-12-29T01:38:22Z</time>
      </trkpt>
      <trkpt lat="37.036990" lon="-112.524930">
        <ele>1498.644</ele>
        <time>2018-12-29T01:38:42Z</time>
      </trkpt>
      <trkpt lat="37.037200" lon="-112.524980">
        <ele>1498.689</ele>
        <time>2018-12-29T01:39:02Z</time>
      </trkpt>
      <trkpt lat="37.037540" lon="-112.525070">
        <ele>1498.570</ele>
        <time>2018-12-29T01:39:22Z</time>
      </trkpt>
      <trkpt lat="37.038230" lon="-112.525350">
        <ele>1498.284</ele>
        <time>2018-12-29T01:39:42Z</time>
      </trkpt>
      <trkpt lat="37.038960" lon="-112.525650">
        <ele>1498.968</ele>
        <time>2018-12-29T01:40:02Z</time>
      </trkpt>
      <trkpt lat="37.039390" lon="-112.525840">
        <ele>1499.547</ele>
        <time>2018-12-29T01:40:22Z</time>
      </trkpt>
      <trkpt lat="37.039660" lon="-112.525940">
        <ele>1500.142</ele>
        <time>2018-12-29T01:40:42Z</time>
      </trkpt>
      <trkpt lat="37.040010" lon="-112.526060">
        <ele>1500.844</ele>
        <time>2018-12-29T01:41:02Z</time>
      </trkpt>
      <trkpt lat="37.040630" lon="-112.526250">
        <ele>1502.005</ele>
        <time>2018-12-29T01:41:22Z</time>
      </trkpt>
      <trkpt lat="37.040790" lon="-112.526280">
        <ele>1502.315</ele>
        <time>2018-12-29T01:41:42Z</time>
      </trkpt>
      <trkpt lat="37.041220" lon="-112.526350">
        <ele>1503.008</ele>
        <time>2018-12-29T01:42:02Z</time>
      </trkpt>
      <trkpt lat="37.042540" lon="-112.526360">
        <ele>1504.757</ele>
        <time>2018-12-29T01:42:22Z</time>
      </trkpt>
      <trkpt lat="37.042950" lon="-112.526370">
        <ele>1505.225</ele>
        <time>2018-12-29T01:42:42Z</time>
      </trkpt>
      <trkpt lat="37.042952" lon="-112.526367">
        <ele>1505.210</ele>
        <time>2018-12-29T01:43:02Z</time>
      </trkpt>
      <trkpt lat="37.042960" lon="-112.525760">
        <ele>1505.681</ele>
        <time>2018-12-29T01:43:22Z</time>
      </trkpt>
      <trkpt lat="37.042990" lon="-112.524170">
        <ele>1506.585</ele>
        <time>2018-12-29T01:43:42Z</time>
      </trkpt>
      <trkpt lat="37.043000" lon="-112.523340">
        <ele>1506.729</ele>
        <time>2018-12-29T01:44:02Z</time>
      </trkpt>
      <trkpt lat="37.043000" lon="-112.522070">
        <ele>1507.958</ele>
        <time>2018-12-29T01:44:22Z</time>
      </trkpt>
      <trkpt lat="37.043010" lon="-112.520850">
        <ele>1509.073</ele>
        <time>2018-12-29T01:44:42Z</time>
      </trkpt>
      <trkpt lat="37.043010" lon="-112.519840">
        <ele>1510.277</ele>
        <time>2018-12-29T01:45:02Z</time>
      </trkpt>
      <trkpt lat="37.043010" lon="-112.519280">
        <ele>1510.961</ele>
        <time>2018-12-29T01:45:22Z</time>
      </trkpt>
      <trkpt lat="37.043000" lon="-112.518810">
        <ele>1511.427</ele>
        <time>2018-12-29T01:45:42Z</time>
      </trkpt>
      <trkpt lat="37.043020" lon="-112.517610">
        <ele>1512.608</ele>
        <time>2018-12-29T01:46:02Z</time>
      </trkpt>
      <trkpt lat="37.043030" lon="-112.517130">
        <ele>1513.120</ele>
        <time>2018-12-29T01:46:22Z</time>
      </trkpt>
      <trkpt lat="37.043000" lon="-112.516590">
        <ele>1514.548</ele>
        <time>2018-12-29T01:46:42Z</time>
      </trkpt>
      <trkpt lat="37.042890" lon="-112.515760">
        <ele>1517.023</ele>
        <time>2018-12-29T01:47:02Z</time>
      </trkpt>
      <trkpt lat="37.042760" lon="-112.514880">
        <ele>1519.444</ele>
        <time>2018-12-29T01:47:22Z</time>
      </trkpt>
      <trkpt lat="37.042700" lon="-112.514660">
        <ele>1519.948</ele>
        <time>2018-12-29T01:47:42Z</time>
      </trkpt>
      <trkpt lat="37.042480" lon="-112.513850">
        <ele>1521.082</ele>
        <time>2018-12-29T01:48:02Z</time>
      </trkpt>
      <trkpt lat="37.042440" lon="-112.513710">
        <ele>1521.281</ele>
        <time>2018-12-29T01:48:22Z</time>
      </trkpt>
      <trkpt lat="37.042320" lon="-112.513390">
        <ele>1521.416</ele>
        <time>2018-12-29T01:48:42Z</time>
      </trkpt>
      <trkpt lat="37.042170" lon="-112.512960">
        <ele>1521.816</ele>
        <time>2018-12-29T01:49:02Z</time>
      </trkpt>
      <trkpt lat="37.042010" lon="-112.512590">
        <ele>1522.376</ele>
        <time>2018-12-29T01:49:22Z</time>
      </trkpt>
      <trkpt lat="37.041940" lon="-112.512420">
        <ele>1522.513</ele>
        <time>2018-12-29T01:49:42Z</time>
      </trkpt>
      <trkpt lat="37.041850" lon="-112.512240">
        <ele>1523.008</ele>
        <time>2018-12-29T01:50:02Z</time>
      </trkpt>
      <trkpt lat="37.041450" lon="-112.511470">
        <ele>1524.454</ele>
        <time>2018-12-29T01:50:22Z</time>
      </trkpt>
      <trkpt lat="37.040740" lon="-112.510160">
        <ele>1521.172</ele>
        <time>2018-12-29T01:50:42Z</time>
      </trkpt>
      <trkpt lat="37.039950" lon="-112.508620">
        <ele>1520.787</ele>
        <time>2018-12-29T01:51:02Z</time>
      </trkpt>
      <trkpt lat="37.039410" lon="-112.507650">
        <ele>1520.128</ele>
        <time>2018-12-29T01:51:22Z</time>
      </trkpt>
      <trkpt lat="37.039080" lon="-112.507090">
        <ele>1519.942</ele>
        <time>2018-12-29T01:51:42Z</time>
      </trkpt>
      <trkpt lat="37.037380" lon="-112.503900">
        <ele>1521.676</ele>
        <time>2018-12-29T01:52:02Z</time>
      </trkpt>
      <trkpt lat="37.036500" lon="-112.502300">
        <ele>1525.515</ele>
        <time>2018-12-29T01:52:22Z</time>
      </trkpt>
      <trkpt lat="37.035580" lon="-112.500570">
        <ele>1530.380</ele>
        <time>2018-12-29T01:52:42Z</time>
      </trkpt>
      <trkpt lat="37.035370" lon="-112.500200">
        <ele>1533.852</ele>
        <time>2018-12-29T01:53:02Z</time>
      </trkpt>
      <trkpt lat="37.034070" lon="-112.497800">
        <ele>1547.053</ele>
        <time>2018-12-29T01:53:22Z</time>
      </trkpt>
      <trkpt lat="37.032920" lon="-112.495670">
        <ele>1554.008</ele>
        <time>2018-12-29T01:53:42Z</time>
      </trkpt>
      <trkpt lat="37.031740" lon="-112.493440">
        <ele>1555.708</ele>
        <time>2018-12-29T01:54:02Z</time>
      </trkpt>
      <trkpt lat="37.031010" lon="-112.491890">
        <ele>1551.938</ele>
        <time>2018-12-29T01:54:22Z</time>
      </trkpt>
      <trkpt lat="37.030420" lon="-112.490380">
        <ele>1549.676</ele>
        <time>2018-12-29T01:54:42Z</time>
      </trkpt>
      <trkpt lat="37.030140" lon="-112.489610">
        <ele>1550.651</ele>
        <time>2018-12-29T01:55:02Z</time>
      </trkpt>
      <trkpt lat="37.029810" lon="-112.488550">
        <ele>1549.482</ele>
        <time>2018-12-29T01:55:22Z</time>
      </trkpt>
      <trkpt lat="37.029560" lon="-112.487640">
        <ele>1550.196</ele>
        <time>2018-12-29T01:55:42Z</time>
      </trkpt>
      <trkpt lat="37.029400" lon="-112.487040">
        <ele>1549.540</ele>
        <time>2018-12-29T01:56:02Z</time>
      </trkpt>
      <trkpt lat="37.029270" lon="-112.486450">
        <ele>1550.459</ele>
        <time>2018-12-29T01:56:22Z</time>
      </trkpt>
      <trkpt lat="37.028980" lon="-112.484980">
        <ele>1550.074</ele>
        <time>2018-12-29T01:56:42Z</time>
      </trkpt>
      <trkpt lat="37.028900" lon="-112.484520">
        <ele>1549.592</ele>
        <time>2018-12-29T01:57:02Z</time>
      </trkpt>
      <trkpt lat="37.028730" lon="-112.483460">
        <ele>1549.473</ele>
        <time>2018-12-29T01:57:22Z</time>
      </trkpt>
      <trkpt lat="37.028510" lon="-112.482190">
        <ele>1549.520</ele>
        <time>2018-12-29T01:57:42Z</time>
      </trkpt>
      <trkpt lat="37.028160" lon="-112.480030">
        <ele>1547.508</ele>
        <time>2018-12-29T01:58:02Z</time>
      </trkpt>
      <trkpt lat="37.026690" lon="-112.471200">
        <ele>1548.282</ele>
        <time>2018-12-29T01:58:22Z</time>
      </trkpt>
      <trkpt lat="37.025850" lon="-112.466190">
        <ele>1546.490</ele>
        <time>2018-12-29T01:58:42Z</time>
      </trkpt>
      <trkpt lat="37.025210" lon="-112.462350">
        <ele>1545.845</ele>
        <time>2018-12-29T01:59:02Z</time>
      </trkpt>
      <trkpt lat="37.024900" lon="-112.460460">
        <ele>1548.356</ele>
        <time>2018-12-29T01:59:22Z</time>
      </trkpt>
      <trkpt lat="37.023840" lon="-112.454190">
        <ele>1552.890</ele>
        <time>2018-12-29T01:59:42Z</time>
      </trkpt>
      <trkpt lat="37.023610" lon="-112.452630">
        <ele>1553.244</ele>
        <time>2018-12-29T02:00:02Z</time>
      </trkpt>
      <trkpt lat="37.023430" lon="-112.451370">
        <ele>1553.953</ele>
        <time>2018-12-29T02:00:22Z</time>
      </trkpt>
      <trkpt lat="37.023200" lon="-112.449010">
        <ele>1555.928</ele>
        <time>2018-12-29T02:00:42Z</time>
      </trkpt>
      <trkpt lat="37.023060" lon="-112.447470">
        <ele>1559.169</ele>
        <time>2018-12-29T02:01:02Z</time>
      </trkpt>
      <trkpt lat="37.023040" lon="-112.447060">
        <ele>1559.704</ele>
        <time>2018-12-29T02:01:22Z</time>
      </trkpt>
      <trkpt lat="37.022950" lon="-112.445330">
        <ele>1561.724</ele>
        <time>2018-12-29T02:01:42Z</time>
      </trkpt>
      <trkpt lat="37.022910" lon="-112.444160">
        <ele>1563.108</ele>
        <time>2018-12-29T02:02:02Z</time>
      </trkpt>
      <trkpt lat="37.022890" lon="-112.442590">
        <ele>1565.869</ele>
        <time>2018-12-29T02:02:22Z</time>
      </trkpt>
      <trkpt lat="37.022900" lon="-112.441140">
        <ele>1567.547</ele>
        <time>2018-12-29T02:02:42Z</time>
      </trkpt>
      <trkpt lat="37.022920" lon="-112.440190">
        <ele>1568.422</ele>
        <time>2018-12-29T02:03:02Z</time>
      </trkpt>
      <trkpt lat="37.022940" lon="-112.439730">
        <ele>1568.923</ele>
        <time>2018-12-29T02:03:22Z</time>
      </trkpt>
      <trkpt lat="37.022950" lon="-112.439230">
        <ele>1569.637</ele>
        <time>2018-12-29T02:03:42Z</time>
      </trkpt>
      <trkpt lat="37.023000" lon="-112.438330">
        <ele>1570.731</ele>
        <time>2018-12-29T02:04:02Z</time>
      </trkpt>
      <trkpt lat="37.023040" lon="-112.437760">
        <ele>1571.280</ele>
        <time>2018-12-29T02:04:22Z</time>
      </trkpt>
      <trkpt lat="37.023080" lon="-112.437010">
        <ele>1571.775</ele>
        <time>2018-12-29T02:04:42Z</time>
      </trkpt>
      <trkpt lat="37.023190" lon="-112.435740">
        <ele>1572.886</ele>
        <time>2018-12-29T02:05:02Z</time>
      </trkpt>
      <trkpt lat="37.023360" lon="-112.434360">
        <ele>1572.560</ele>
        <time>2018-12-29T02:05:22Z</time>
      </trkpt>
      <trkpt lat="37.023470" lon="-112.433370">
        <ele>1571.926</ele>
        <time>2018-12-29T02:05:42Z</time>
      </trkpt>
      <trkpt lat="37.023770" lon="-112.431080">
        <ele>1573.108</ele>
        <time>2018-12-29T02:06:02Z</time>
      </trkpt>
      <trkpt lat="37.023920" lon="-112.430230">
        <ele>1573.871</ele>
        <time>2018-12-29T02:06:22Z</time>
      </trkpt>
      <trkpt lat="37.024010" lon="-112.429740">
        <ele>1573.989</ele>
        <time>2018-12-29T02:06:42Z</time>
      </trkpt>
      <trkpt lat="37.024070" lon="-112.429350">
        <ele>1573.964</ele>
        <time>2018-12-29T02:07:02Z</time>
      </trkpt>
      <trkpt lat="37.024200" lon="-112.428660">
        <ele>1574.015</ele>
        <time>2018-12-29T02:07:22Z</time>
      </trkpt>
      <trkpt lat="37.024290" lon="-112.428190">
        <ele>1574.939</ele>
        <time>2018-12-29T02:07:42Z</time>
      </trkpt>
      <trkpt lat="37.024390" lon="-112.427720">
        <ele>1576.073</ele>
        <time>2018-12-29T02:08:02Z</time>
      </trkpt>
      <trkpt lat="37.024600" lon="-112.426750">
        <ele>1579.972</ele>
        <time>2018-12-29T02:08:22Z</time>
      </trkpt>
      <trkpt lat="37.024770" lon="-112.426020">
        <ele>1583.017</ele>
        <time>2018-12-29T02:08:42Z</time>
      </trkpt>
      <trkpt lat="37.024850" lon="-112.425660">
        <ele>1584.178</ele>
        <time>2018-12-29T02:09:02Z</time>
      </trkpt>
      <trkpt lat="37.025120" lon="-112.424530">
        <ele>1586.233</ele>
        <time>2018-12-29T02:09:22Z</time>
      </trkpt>
      <trkpt lat="37.025500" lon="-112.422890">
        <ele>1590.926</ele>
        <time>2018-12-29T02:09:42Z</time>
      </trkpt>
      <trkpt lat="37.025690" lon="-112.422060">
        <ele>1591.908</ele>
        <time>2018-12-29T02:10:02Z</time>
      </trkpt>
      <trkpt lat="37.025890" lon="-112.421210">
        <ele>1592.330</ele>
        <time>2018-12-29T02:10:22Z</time>
      </trkpt>
      <trkpt lat="37.026410" lon="-112.418960">
        <ele>1592.098</ele>
        <time>2018-12-29T02:10:42Z</time>
      </trkpt>
      <trkpt lat="37.026670" lon="-112.417790">
        <ele>1591.193</ele>
        <time>2018-12-29T02:11:02Z</time>
      </trkpt>
      <trkpt lat="37.026880" lon="-112.416890">
        <ele>1590.444</ele>
        <time>2018-12-29T02:11:22Z</time>
      </trkpt>
      <trkpt lat="37.027090" lon="-112.415950">
        <ele>1589.728</ele>
        <time>2018-12-29T02:11:42Z</time>
      </trkpt>
      <trkpt lat="37.027280" lon="-112.415230">
        <ele>1589.152</ele>
        <time>2018-12-29T02:12:02Z</time>
      </trkpt>
      <trkpt lat="37.027460" lon="-112.414460">
        <ele>1588.121</ele>
        <time>2018-12-29T02:12:22Z</time>
      </trkpt>
      <trkpt lat="37.027610" lon="-112.413870">
        <ele>1587.556</ele>
        <time>2018-12-29T02:12:42Z</time>
      </trkpt>
      <trkpt lat="37.027750" lon="-112.413290">
        <ele>1587.498</ele>
        <time>2018-12-29T02:13:02Z</time>
      </trkpt>
      <trkpt lat="37.028050" lon="-112.411970">
        <ele>1588.015</ele>
        <time>2018-12-29T02:13:22Z</time>
      </trkpt>
      <trkpt lat="37.030680" lon="-112.400680">
        <ele>1583.226</ele>
        <time>2018-12-29T02:13:42Z</time>
      </trkpt>
      <trkpt lat="37.030840" lon="-112.400000">
        <ele>1582.708</ele>
        <time>2018-12-29T02:14:02Z</time>
      </trkpt>
      <trkpt lat="37.031020" lon="-112.399250">
        <ele>1582.782</ele>
        <time>2018-12-29T02:14:22Z</time>
      </trkpt>
      <trkpt lat="37.031950" lon="-112.395240">
        <ele>1581.810</ele>
        <time>2018-12-29T02:14:42Z</time>
      </trkpt>
      <trkpt lat="37.032240" lon="-112.394020">
        <ele>1581.085</ele>
        <time>2018-12-29T02:15:02Z</time>
      </trkpt>
      <trkpt lat="37.034350" lon="-112.385020">
        <ele>1569.896</ele>
        <time>2018-12-29T02:15:22Z</time>
      </trkpt>
      <trkpt lat="37.034570" lon="-112.384040">
        <ele>1568.450</ele>
        <time>2018-12-29T02:15:42Z</time>
      </trkpt>
      <trkpt lat="37.034990" lon="-112.382260">
        <ele>1564.994</ele>
        <time>2018-12-29T02:16:02Z</time>
      </trkpt>
      <trkpt lat="37.035300" lon="-112.380880">
        <ele>1562.563</ele>
        <time>2018-12-29T02:16:22Z</time>
      </trkpt>
      <trkpt lat="37.035570" lon="-112.379550">
        <ele>1561.598</ele>
        <time>2018-12-29T02:16:42Z</time>
      </trkpt>
      <trkpt lat="37.035800" lon="-112.378350">
        <ele>1559.745</ele>
        <time>2018-12-29T02:17:02Z</time>
      </trkpt>
      <trkpt lat="37.036170" lon="-112.376190">
        <ele>1557.747</ele>
        <time>2018-12-29T02:17:22Z</time>
      </trkpt>
      <trkpt lat="37.036300" lon="-112.375420">
        <ele>1557.511</ele>
        <time>2018-12-29T02:17:42Z</time>
      </trkpt>
      <trkpt lat="37.036480" lon="-112.374200">
        <ele>1557.308</ele>
        <time>2018-12-29T02:18:02Z</time>
      </trkpt>
      <trkpt lat="37.036730" lon="-112.372310">
        <ele>1557.077</ele>
        <time>2018-12-29T02:18:22Z</time>
      </trkpt>
      <trkpt lat="37.036860" lon="-112.371170">
        <ele>1557.085</ele>
        <time>2018-12-29T02:18:42Z</time>
      </trkpt>
      <trkpt lat="37.037010" lon="-112.369740">
        <ele>1556.810</ele>
        <time>2018-12-29T02:19:02Z</time>
      </trkpt>
      <trkpt lat="37.037080" lon="-112.369050">
        <ele>1556.821</ele>
        <time>2018-12-29T02:19:22Z</time>
      </trkpt>
      <trkpt lat="37.037150" lon="-112.368240">
        <ele>1556.755</ele>
        <time>2018-12-29T02:19:42Z</time>
      </trkpt>
      <trkpt lat="37.037240" lon="-112.367140">
        <ele>1556.769</ele>
        <time>2018-12-29T02:20:02Z</time>
      </trkpt>
      <trkpt lat="37.037310" lon="-112.365540">
        <ele>1556.838</ele>
        <time>2018-12-29T02:20:22Z</time>
      </trkpt>
      <trkpt lat="37.037340" lon="-112.364980">
        <ele>1556.843</ele>
        <time>2018-12-29T02:20:42Z</time>
      </trkpt>
      <trkpt lat="37.037570" lon="-112.356400">
        <ele>1556.829</ele>
        <time>2018-12-29T02:21:02Z</time>
      </trkpt>
      <trkpt lat="37.037610" lon="-112.354530">
        <ele>1558.400</ele>
        <time>2018-12-29T02:21:22Z</time>
      </trkpt>
      <trkpt lat="37.037630" lon="-112.353410">
        <ele>1560.020</ele>
        <time>2018-12-29T02:21:42Z</time>
      </trkpt>
      <trkpt lat="37.037820" lon="-112.346830">
        <ele>1576.108</ele>
        <time>2018-12-29T02:22:02Z</time>
      </trkpt>
      <trkpt lat="37.037860" lon="-112.345330">
        <ele>1580.915</ele>
        <time>2018-12-29T02:22:22Z</time>
      </trkpt>
      <trkpt lat="37.038260" lon="-112.331180">
        <ele>1579.973</ele>
        <time>2018-12-29T02:22:42Z</time>
      </trkpt>
      <trkpt lat="37.038400" lon="-112.325970">
        <ele>1581.488</ele>
        <time>2018-12-29T02:23:02Z</time>
      </trkpt>
      <trkpt lat="37.038500" lon="-112.322380">
        <ele>1586.029</ele>
        <time>2018-12-29T02:23:22Z</time>
      </trkpt>
      <trkpt lat="37.038560" lon="-112.320150">
        <ele>1587.113</ele>
        <time>2018-12-29T02:23:42Z</time>
      </trkpt>
      <trkpt lat="37.038610" lon="-112.318010">
        <ele>1588.537</ele>
        <time>2018-12-29T02:24:02Z</time>
      </trkpt>
      <trkpt lat="37.038740" lon="-112.313220">
        <ele>1589.566</ele>
        <time>2018-12-29T02:24:22Z</time>
      </trkpt>
      <trkpt lat="37.038820" lon="-112.309730">
        <ele>1589.341</ele>
        <time>2018-12-29T02:24:42Z</time>
      </trkpt>
      <trkpt lat="37.039110" lon="-112.298860">
        <ele>1599.066</ele>
        <time>2018-12-29T02:25:02Z</time>
      </trkpt>
      <trkpt lat="37.039190" lon="-112.295940">
        <ele>1602.029</ele>
        <time>2018-12-29T02:25:22Z</time>
      </trkpt>
      <trkpt lat="37.039300" lon="-112.291880">
        <ele>1606.321</ele>
        <time>2018-12-29T02:25:42Z</time>
      </trkpt>
      <trkpt lat="37.039510" lon="-112.283800">
        <ele>1612.708</ele>
        <time>2018-12-29T02:26:02Z</time>
      </trkpt>
      <trkpt lat="37.039620" lon="-112.279750">
        <ele>1613.829</ele>
        <time>2018-12-29T02:26:22Z</time>
      </trkpt>
      <trkpt lat="37.039680" lon="-112.277580">
        <ele>1614.497</ele>
        <time>2018-12-29T02:26:42Z</time>
      </trkpt>
      <trkpt lat="37.040070" lon="-112.263120">
        <ele>1623.682</ele>
        <time>2018-12-29T02:27:02Z</time>
      </trkpt>
      <trkpt lat="37.040210" lon="-112.257750">
        <ele>1630.153</ele>
        <time>2018-12-29T02:27:22Z</time>
      </trkpt>
      <trkpt lat="37.040370" lon="-112.251210">
        <ele>1634.677</ele>
        <time>2018-12-29T02:27:42Z</time>
      </trkpt>
      <trkpt lat="37.040430" lon="-112.249160">
        <ele>1634.641</ele>
        <time>2018-12-29T02:28:02Z</time>
      </trkpt>
      <trkpt lat="37.040510" lon="-112.245980">
        <ele>1637.750</ele>
        <time>2018-12-29T02:28:22Z</time>
      </trkpt>
      <trkpt lat="37.040530" lon="-112.245080">
        <ele>1638.445</ele>
        <time>2018-12-29T02:28:42Z</time>
      </trkpt>
      <trkpt lat="37.040640" lon="-112.240890">
        <ele>1648.298</ele>
        <time>2018-12-29T02:29:02Z</time>
      </trkpt>
      <trkpt lat="37.040690" lon="-112.238990">
        <ele>1654.115</ele>
        <time>2018-12-29T02:29:22Z</time>
      </trkpt>
      <trkpt lat="37.040860" lon="-112.232790">
        <ele>1657.326</ele>
        <time>2018-12-29T02:29:42Z</time>
      </trkpt>
      <trkpt lat="37.040910" lon="-112.230740">
        <ele>1658.308</ele>
        <time>2018-12-29T02:30:02Z</time>
      </trkpt>
      <trkpt lat="37.040950" lon="-112.229290">
        <ele>1657.222</ele>
        <time>2018-12-29T02:30:22Z</time>
      </trkpt>
      <trkpt lat="37.040980" lon="-112.227910">
        <ele>1656.240</ele>
        <time>2018-12-29T02:30:42Z</time>
      </trkpt>
      <trkpt lat="37.041000" lon="-112.226860">
        <ele>1655.585</ele>
        <time>2018-12-29T02:31:02Z</time>
      </trkpt>
      <trkpt lat="37.041050" lon="-112.224970">
        <ele>1655.286</ele>
        <time>2018-12-29T02:31:22Z</time>
      </trkpt>
      <trkpt lat="37.041070" lon="-112.224160">
        <ele>1654.740</ele>
        <time>2018-12-29T02:31:42Z</time>
      </trkpt>
      <trkpt lat="37.041090" lon="-112.223820">
        <ele>1656.224</ele>
        <time>2018-12-29T02:32:02Z</time>
      </trkpt>
      <trkpt lat="37.041090" lon="-112.223640">
        <ele>1656.983</ele>
        <time>2018-12-29T02:32:22Z</time>
      </trkpt>
      <trkpt lat="37.041100" lon="-112.223500">
        <ele>1657.588</ele>
        <time>2018-12-29T02:32:42Z</time>
      </trkpt>
      <trkpt lat="37.041170" lon="-112.222690">
        <ele>1658.986</ele>
        <time>2018-12-29T02:33:02Z</time>
      </trkpt>
      <trkpt lat="37.041240" lon="-112.222080">
        <ele>1659.060</ele>
        <time>2018-12-29T02:33:22Z</time>
      </trkpt>
      <trkpt lat="37.041330" lon="-112.221390">
        <ele>1659.126</ele>
        <time>2018-12-29T02:33:42Z</time>
      </trkpt>
      <trkpt lat="37.041370" lon="-112.221110">
        <ele>1659.208</ele>
        <time>2018-12-29T02:34:02Z</time>
      </trkpt>
      <trkpt lat="37.041440" lon="-112.220740">
        <ele>1659.531</ele>
        <time>2018-12-29T02:34:22Z</time>
      </trkpt>
      <trkpt lat="37.041490" lon="-112.220450">
        <ele>1659.699</ele>
        <time>2018-12-29T02:34:42Z</time>
      </trkpt>
      <trkpt lat="37.041570" lon="-112.220040">
        <ele>1659.614</ele>
        <time>2018-12-29T02:35:02Z</time>
      </trkpt>
      <trkpt lat="37.041690" lon="-112.219550">
        <ele>1659.675</ele>
        <time>2018-12-29T02:35:22Z</time>
      </trkpt>
      <trkpt lat="37.041770" lon="-112.219210">
        <ele>1659.779</ele>
        <time>2018-12-29T02:35:42Z</time>
      </trkpt>
      <trkpt lat="37.041850" lon="-112.218930">
        <ele>1660.293</ele>
        <time>2018-12-29T02:36:02Z</time>
      </trkpt>
      <trkpt lat="37.042050" lon="-112.218210">
        <ele>1662.242</ele>
        <time>2018-12-29T02:36:22Z</time>
      </trkpt>
      <trkpt lat="37.042250" lon="-112.217570">
        <ele>1663.947</ele>
        <time>2018-12-29T02:36:42Z</time>
      </trkpt>
      <trkpt lat="37.042380" lon="-112.217200">
        <ele>1664.921</ele>
        <time>2018-12-29T02:37:02Z</time>
      </trkpt>
      <trkpt lat="37.042510" lon="-112.216820">
        <ele>1665.241</ele>
        <time>2018-12-29T02:37:22Z</time>
      </trkpt>
      <trkpt lat="37.042690" lon="-112.216360">
        <ele>1665.205</ele>
        <time>2018-12-29T02:37:42Z</time>
      </trkpt>
      <trkpt lat="37.042900" lon="-112.215850">
        <ele>1665.308</ele>
        <time>2018-12-29T02:38:02Z</time>
      </trkpt>
      <trkpt lat="37.043180" lon="-112.215210">
        <ele>1666.145</ele>
        <time>2018-12-29T02:38:22Z</time>
      </trkpt>
      <trkpt lat="37.043400" lon="-112.214770">
        <ele>1666.593</ele>
        <time>2018-12-29T02:38:42Z</time>
      </trkpt>
      <trkpt lat="37.043540" lon="-112.214500">
        <ele>1666.658</ele>
        <time>2018-12-29T02:39:02Z</time>
      </trkpt>
      <trkpt lat="37.043660" lon="-112.214280">
        <ele>1666.859</ele>
        <time>2018-12-29T02:39:22Z</time>
      </trkpt>
      <trkpt lat="37.043840" lon="-112.213940">
        <ele>1666.873</ele>
        <time>2018-12-29T02:39:42Z</time>
      </trkpt>
      <trkpt lat="37.043980" lon="-112.213670">
        <ele>1666.697</ele>
        <time>2018-12-29T02:40:02Z</time>
      </trkpt>
      <trkpt lat="37.044150" lon="-112.213380">
        <ele>1666.486</ele>
        <time>2018-12-29T02:40:22Z</time>
      </trkpt>
      <trkpt lat="37.044380" lon="-112.213000">
        <ele>1666.611</ele>
        <time>2018-12-29T02:40:42Z</time>
      </trkpt>
      <trkpt lat="37.044620" lon="-112.212630">
        <ele>1667.043</ele>
        <time>2018-12-29T02:41:02Z</time>
      </trkpt>
      <trkpt lat="37.045040" lon="-112.212020">
        <ele>1667.264</ele>
        <time>2018-12-29T02:41:22Z</time>
      </trkpt>
      <trkpt lat="37.045460" lon="-112.211430">
        <ele>1669.410</ele>
        <time>2018-12-29T02:41:42Z</time>
      </trkpt>
      <trkpt lat="37.045880" lon="-112.210830">
        <ele>1669.808</ele>
        <time>2018-12-29T02:42:02Z</time>
      </trkpt>
      <trkpt lat="37.046060" lon="-112.210570">
        <ele>1669.667</ele>
        <time>2018-12-29T02:42:22Z</time>
      </trkpt>
      <trkpt lat="37.046220" lon="-112.210340">
        <ele>1670.125</ele>
        <time>2018-12-29T02:42:42Z</time>
      </trkpt>
      <trkpt lat="37.046510" lon="-112.209930">
        <ele>1670.920</ele>
        <time>2018-12-29T02:43:02Z</time>
      </trkpt>
      <trkpt lat="37.046800" lon="-112.209520">
        <ele>1670.851</ele>
        <time>2018-12-29T02:43:22Z</time>
      </trkpt>
      <trkpt lat="37.047020" lon="-112.209190">
        <ele>1670.735</ele>
        <time>2018-12-29T02:43:42Z</time>
      </trkpt>
      <trkpt lat="37.047300" lon="-112.208790">
        <ele>1669.999</ele>
        <time>2018-12-29T02:44:02Z</time>
      </trkpt>
      <trkpt lat="37.047540" lon="-112.208440">
        <ele>1668.998</ele>
        <time>2018-12-29T02:44:22Z</time>
      </trkpt>
      <trkpt lat="37.047850" lon="-112.208000">
        <ele>1667.323</ele>
        <time>2018-12-29T02:44:42Z</time>
      </trkpt>
      <trkpt lat="37.048130" lon="-112.207590">
        <ele>1665.528</ele>
        <time>2018-12-29T02:45:02Z</time>
      </trkpt>
      <trkpt lat="37.048810" lon="-112.206610">
        <ele>1664.189</ele>
        <time>2018-12-29T02:45:22Z</time>
      </trkpt>
      <trkpt lat="37.049760" lon="-112.205260">
        <ele>1661.617</ele>
        <time>2018-12-29T02:45:42Z</time>
      </trkpt>
      <trkpt lat="37.050360" lon="-112.204400">
        <ele>1660.508</ele>
        <time>2018-12-29T02:46:02Z</time>
      </trkpt>
      <trkpt lat="37.050730" lon="-112.203850">
        <ele>1662.425</ele>
        <time>2018-12-29T02:46:22Z</time>
      </trkpt>
      <trkpt lat="37.051460" lon="-112.202780">
        <ele>1665.473</ele>
        <time>2018-12-29T02:46:42Z</time>
      </trkpt>
      <trkpt lat="37.051500" lon="-112.202740">
        <ele>1665.548</ele>
        <time>2018-12-29T02:47:02Z</time>
      </trkpt>
      <trkpt lat="37.051980" lon="-112.202030">
        <ele>1669.759</ele>
        <time>2018-12-29T02:47:22Z</time>
      </trkpt>
      <trkpt lat="37.054820" lon="-112.197960">
        <ele>1688.053</ele>
        <time>2018-12-29T02:47:42Z</time>
      </trkpt>
      <trkpt lat="37.055170" lon="-112.197460">
        <ele>1690.067</ele>
        <time>2018-12-29T02:48:02Z</time>
      </trkpt>
      <trkpt lat="37.059880" lon="-112.190750">
        <ele>1701.896</ele>
        <time>2018-12-29T02:48:22Z</time>
      </trkpt>
      <trkpt lat="37.061140" lon="-112.188940">
        <ele>1705.491</ele>
        <time>2018-12-29T02:48:42Z</time>
      </trkpt>
      <trkpt lat="37.061560" lon="-112.188350">
        <ele>1706.547</ele>
        <time>2018-12-29T02:49:02Z</time>
      </trkpt>
      <trkpt lat="37.061680" lon="-112.188160">
        <ele>1706.829</ele>
        <time>2018-12-29T02:49:22Z</time>
      </trkpt>
      <trkpt lat="37.061950" lon="-112.187780">
        <ele>1708.121</ele>
        <time>2018-12-29T02:49:42Z</time>
      </trkpt>
      <trkpt lat="37.064550" lon="-112.184020">
        <ele>1712.708</ele>
        <time>2018-12-29T02:50:02Z</time>
      </trkpt>
      <trkpt lat="37.068520" lon="-112.178340">
        <ele>1722.517</ele>
        <time>2018-12-29T02:50:22Z</time>
      </trkpt>
      <trkpt lat="37.072210" lon="-112.173020">
        <ele>1738.895</ele>
        <time>2018-12-29T02:50:42Z</time>
      </trkpt>
      <trkpt lat="37.076240" lon="-112.167240">
        <ele>1729.310</ele>
        <time>2018-12-29T02:51:02Z</time>
      </trkpt>
      <trkpt lat="37.077050" lon="-112.166060">
        <ele>1727.081</ele>
        <time>2018-12-29T02:51:22Z</time>
      </trkpt>
      <trkpt lat="37.077540" lon="-112.165360">
        <ele>1725.935</ele>
        <time>2018-12-29T02:51:42Z</time>
      </trkpt>
      <trkpt lat="37.079090" lon="-112.163130">
        <ele>1724.559</ele>
        <time>2018-12-29T02:52:02Z</time>
      </trkpt>
      <trkpt lat="37.079720" lon="-112.162220">
        <ele>1720.378</ele>
        <time>2018-12-29T02:52:22Z</time>
      </trkpt>
      <trkpt lat="37.079970" lon="-112.161860">
        <ele>1720.213</ele>
        <time>2018-12-29T02:52:42Z</time>
      </trkpt>
      <trkpt lat="37.080340" lon="-112.161350">
        <ele>1720.173</ele>
        <time>2018-12-29T02:53:02Z</time>
      </trkpt>
      <trkpt lat="37.080680" lon="-112.160860">
        <ele>1719.385</ele>
        <time>2018-12-29T02:53:22Z</time>
      </trkpt>
      <trkpt lat="37.081140" lon="-112.160190">
        <ele>1717.613</ele>
        <time>2018-12-29T02:53:42Z</time>
      </trkpt>
      <trkpt lat="37.081540" lon="-112.159650">
        <ele>1716.408</ele>
        <time>2018-12-29T02:54:02Z</time>
      </trkpt>
      <trkpt lat="37.082170" lon="-112.158760">
        <ele>1714.290</ele>
        <time>2018-12-29T02:54:22Z</time>
      </trkpt>
      <trkpt lat="37.082670" lon="-112.158040">
        <ele>1712.968</ele>
        <time>2018-12-29T02:54:42Z</time>
      </trkpt>
      <trkpt lat="37.083130" lon="-112.157390">
        <ele>1711.533</ele>
        <time>2018-12-29T02:55:02Z</time>
      </trkpt>
      <trkpt lat="37.083480" lon="-112.156870">
        <ele>1710.694</ele>
        <time>2018-12-29T02:55:22Z</time>
      </trkpt>
      <trkpt lat="37.094500" lon="-112.141030">
        <ele>1681.558</ele>
        <time>2018-12-29T02:55:42Z</time>
      </trkpt>
      <trkpt lat="37.094920" lon="-112.140430">
        <ele>1680.832</ele>
        <time>2018-12-29T02:56:02Z</time>
      </trkpt>
      <trkpt lat="37.097170" lon="-112.137220">
        <ele>1677.411</ele>
        <time>2018-12-29T02:56:22Z</time>
      </trkpt>
      <trkpt lat="37.098310" lon="-112.135560">
        <ele>1674.536</ele>
        <time>2018-12-29T02:56:42Z</time>
      </trkpt>
      <trkpt lat="37.099280" lon="-112.134160">
        <ele>1672.973</ele>
        <time>2018-12-29T02:57:02Z</time>
      </trkpt>
      <trkpt lat="37.100350" lon="-112.132600">
        <ele>1671.585</ele>
        <time>2018-12-29T02:57:22Z</time>
      </trkpt>
      <trkpt lat="37.100720" lon="-112.132080">
        <ele>1671.313</ele>
        <time>2018-12-29T02:57:42Z</time>
      </trkpt>
      <trkpt lat="37.101210" lon="-112.131380">
        <ele>1670.008</ele>
        <time>2018-12-29T02:58:02Z</time>
      </trkpt>
      <trkpt lat="37.101540" lon="-112.130910">
        <ele>1668.840</ele>
        <time>2018-12-29T02:58:22Z</time>
      </trkpt>
      <trkpt lat="37.102280" lon="-112.129870">
        <ele>1666.698</ele>
        <time>2018-12-29T02:58:42Z</time>
      </trkpt>
      <trkpt lat="37.103340" lon="-112.128330">
        <ele>1665.823</ele>
        <time>2018-12-29T02:59:02Z</time>
      </trkpt>
      <trkpt lat="37.104760" lon="-112.126280">
        <ele>1665.014</ele>
        <time>2018-12-29T02:59:22Z</time>
      </trkpt>
      <trkpt lat="37.105260" lon="-112.125560">
        <ele>1664.238</ele>
        <time>2018-12-29T02:59:42Z</time>
      </trkpt>
      <trkpt lat="37.106000" lon="-112.124500">
        <ele>1662.032</ele>
        <time>2018-12-29T03:00:02Z</time>
      </trkpt>
      <trkpt lat="37.106420" lon="-112.123890">
        <ele>1661.081</ele>
        <time>2018-12-29T03:00:22Z</time>
      </trkpt>
      <trkpt lat="37.106890" lon="-112.123220">
        <ele>1659.926</ele>
        <time>2018-12-29T03:00:42Z</time>
      </trkpt>
      <trkpt lat="37.107010" lon="-112.123040">
        <ele>1659.774</ele>
        <time>2018-12-29T03:01:02Z</time>
      </trkpt>
      <trkpt lat="37.107150" lon="-112.122850">
        <ele>1659.456</ele>
        <time>2018-12-29T03:01:22Z</time>
      </trkpt>
      <trkpt lat="37.107350" lon="-112.122550">
        <ele>1659.021</ele>
        <time>2018-12-29T03:01:42Z</time>
      </trkpt>
      <trkpt lat="37.107590" lon="-112.122190">
        <ele>1658.908</ele>
        <time>2018-12-29T03:02:02Z</time>
      </trkpt>
      <trkpt lat="37.109530" lon="-112.119400">
        <ele>1656.320</ele>
        <time>2018-12-29T03:02:22Z</time>
      </trkpt>
      <trkpt lat="37.110210" lon="-112.118400">
        <ele>1656.088</ele>
        <time>2018-12-29T03:02:42Z</time>
      </trkpt>
      <trkpt lat="37.110970" lon="-112.117330">
        <ele>1655.223</ele>
        <time>2018-12-29T03:03:02Z</time>
      </trkpt>
      <trkpt lat="37.111210" lon="-112.117000">
        <ele>1654.884</ele>
        <time>2018-12-29T03:03:22Z</time>
      </trkpt>
      <trkpt lat="37.111490" lon="-112.116590">
        <ele>1654.218</ele>
        <time>2018-12-29T03:03:42Z</time>
      </trkpt>
      <trkpt lat="37.112090" lon="-112.115750">
        <ele>1653.232</ele>
        <time>2018-12-29T03:04:02Z</time>
      </trkpt>
      <trkpt lat="37.115760" lon="-112.110460">
        <ele>1644.381</ele>
        <time>2018-12-29T03:04:22Z</time>
      </trkpt>
      <trkpt lat="37.116270" lon="-112.109730">
        <ele>1643.196</ele>
        <time>2018-12-29T03:04:42Z</time>
      </trkpt>
      <trkpt lat="37.116800" lon="-112.108970">
        <ele>1642.129</ele>
        <time>2018-12-29T03:05:02Z</time>
      </trkpt>
      <trkpt lat="37.117200" lon="-112.108390">
        <ele>1641.300</ele>
        <time>2018-12-29T03:05:22Z</time>
      </trkpt>
      <trkpt lat="37.117510" lon="-112.107950">
        <ele>1640.920</ele>
        <time>2018-12-29T03:05:42Z</time>
      </trkpt>
      <trkpt lat="37.117990" lon="-112.107250">
        <ele>1640.408</ele>
        <time>2018-12-29T03:06:02Z</time>
      </trkpt>
      <trkpt lat="37.118510" lon="-112.106490">
        <ele>1640.425</ele>
        <time>2018-12-29T03:06:22Z</time>
      </trkpt>
      <trkpt lat="37.118830" lon="-112.106040">
        <ele>1640.983</ele>
        <time>2018-12-29T03:06:42Z</time>
      </trkpt>
      <trkpt lat="37.119540" lon="-112.105020">
        <ele>1640.928</ele>
        <time>2018-12-29T03:07:02Z</time>
      </trkpt>
      <trkpt lat="37.120150" lon="-112.104180">
        <ele>1641.349</ele>
        <time>2018-12-29T03:07:22Z</time>
      </trkpt>
      <trkpt lat="37.120720" lon="-112.103350">
        <ele>1640.663</ele>
        <time>2018-12-29T03:07:42Z</time>
      </trkpt>
      <trkpt lat="37.121080" lon="-112.102830">
        <ele>1640.167</ele>
        <time>2018-12-29T03:08:02Z</time>
      </trkpt>
      <trkpt lat="37.121290" lon="-112.102520">
        <ele>1639.556</ele>
        <time>2018-12-29T03:08:22Z</time>
      </trkpt>
      <trkpt lat="37.121500" lon="-112.102210">
        <ele>1639.371</ele>
        <time>2018-12-29T03:08:42Z</time>
      </trkpt>
      <trkpt lat="37.121740" lon="-112.101860">
        <ele>1638.926</ele>
        <time>2018-12-29T03:09:02Z</time>
      </trkpt>
      <trkpt lat="37.121950" lon="-112.101550">
        <ele>1638.547</ele>
        <time>2018-12-29T03:09:22Z</time>
      </trkpt>
      <trkpt lat="37.122270" lon="-112.101100">
        <ele>1638.511</ele>
        <time>2018-12-29T03:09:42Z</time>
      </trkpt>
      <trkpt lat="37.122540" lon="-112.100710">
        <ele>1638.708</ele>
        <time>2018-12-29T03:10:02Z</time>
      </trkpt>
      <trkpt lat="37.122710" lon="-112.100480">
        <ele>1638.045</ele>
        <time>2018-12-29T03:10:22Z</time>
      </trkpt>
      <trkpt lat="37.123100" lon="-112.099910">
        <ele>1636.663</ele>
        <time>2018-12-29T03:10:42Z</time>
      </trkpt>
      <trkpt lat="37.123500" lon="-112.099340">
        <ele>1636.298</ele>
        <time>2018-12-29T03:11:02Z</time>
      </trkpt>
      <trkpt lat="37.124170" lon="-112.098470">
        <ele>1636.099</ele>
        <time>2018-12-29T03:11:22Z</time>
      </trkpt>
      <trkpt lat="37.124760" lon="-112.097680">
        <ele>1634.843</ele>
        <time>2018-12-29T03:11:42Z</time>
      </trkpt>
      <trkpt lat="37.125070" lon="-112.097280">
        <ele>1634.257</ele>
        <time>2018-12-29T03:12:02Z</time>
      </trkpt>
      <trkpt lat="37.125540" lon="-112.096680">
        <ele>1633.676</ele>
        <time>2018-12-29T03:12:22Z</time>
      </trkpt>
      <trkpt lat="37.126290" lon="-112.095770">
        <ele>1631.311</ele>
        <time>2018-12-29T03:12:42Z</time>
      </trkpt>
      <trkpt lat="37.126740" lon="-112.095220">
        <ele>1629.751</ele>
        <time>2018-12-29T03:13:02Z</time>
      </trkpt>
      <trkpt lat="37.127020" lon="-112.094880">
        <ele>1629.001</ele>
        <time>2018-12-29T03:13:22Z</time>
      </trkpt>
      <trkpt lat="37.127310" lon="-112.094510">
        <ele>1628.511</ele>
        <time>2018-12-29T03:13:42Z</time>
      </trkpt>
      <trkpt lat="37.127720" lon="-112.093990">
        <ele>1628.108</ele>
        <time>2018-12-29T03:14:02Z</time>
      </trkpt>
      <trkpt lat="37.127900" lon="-112.093770">
        <ele>1627.798</ele>
        <time>2018-12-29T03:14:22Z</time>
      </trkpt>
      <trkpt lat="37.128040" lon="-112.093590">
        <ele>1627.216</ele>
        <time>2018-12-29T03:14:42Z</time>
      </trkpt>
      <trkpt lat="37.128170" lon="-112.093440">
        <ele>1626.521</ele>
        <time>2018-12-29T03:15:02Z</time>
      </trkpt>
      <trkpt lat="37.128590" lon="-112.092920">
        <ele>1623.932</ele>
        <time>2018-12-29T03:15:22Z</time>
      </trkpt>
      <trkpt lat="37.128960" lon="-112.092470">
        <ele>1623.436</ele>
        <time>2018-12-29T03:15:42Z</time>
      </trkpt>
      <trkpt lat="37.129220" lon="-112.092130">
        <ele>1622.990</ele>
        <time>2018-12-29T03:16:02Z</time>
      </trkpt>
      <trkpt lat="37.129540" lon="-112.091710">
        <ele>1622.859</ele>
        <time>2018-12-29T03:16:22Z</time>
      </trkpt>
      <trkpt lat="37.129870" lon="-112.091300">
        <ele>1622.784</ele>
        <time>2018-12-29T03:16:42Z</time>
      </trkpt>
      <trkpt lat="37.130180" lon="-112.090930">
        <ele>1622.717</ele>
        <time>2018-12-29T03:17:02Z</time>
      </trkpt>
      <trkpt lat="37.130480" lon="-112.090570">
        <ele>1622.687</ele>
        <time>2018-12-29T03:17:22Z</time>
      </trkpt>
      <trkpt lat="37.130830" lon="-112.090130">
        <ele>1622.115</ele>
        <time>2018-12-29T03:17:42Z</time>
      </trkpt>
      <trkpt lat="37.131610" lon="-112.089170">
        <ele>1621.308</ele>
        <time>2018-12-29T03:18:02Z</time>
      </trkpt>
      <trkpt lat="37.133240" lon="-112.087100">
        <ele>1630.954</ele>
        <time>2018-12-29T03:18:22Z</time>
      </trkpt>
      <trkpt lat="37.134210" lon="-112.085800">
        <ele>1634.782</ele>
        <time>2018-12-29T03:18:42Z</time>
      </trkpt>
      <trkpt lat="37.134680" lon="-112.085180">
        <ele>1634.867</ele>
        <time>2018-12-29T03:19:02Z</time>
      </trkpt>
      <trkpt lat="37.135100" lon="-112.084580">
        <ele>1636.278</ele>
        <time>2018-12-29T03:19:22Z</time>
      </trkpt>
      <trkpt lat="37.136350" lon="-112.082770">
        <ele>1639.682</ele>
        <time>2018-12-29T03:19:42Z</time>
      </trkpt>
      <trkpt lat="37.139480" lon="-112.077980">
        <ele>1638.456</ele>
        <time>2018-12-29T03:20:02Z</time>
      </trkpt>
      <trkpt lat="37.146760" lon="-112.066900">
        <ele>1649.365</ele>
        <time>2018-12-29T03:20:22Z</time>
      </trkpt>
      <trkpt lat="37.155060" lon="-112.054230">
        <ele>1657.810</ele>
        <time>2018-12-29T03:20:42Z</time>
      </trkpt>
      <trkpt lat="37.156270" lon="-112.052390">
        <ele>1659.083</ele>
        <time>2018-12-29T03:21:02Z</time>
      </trkpt>
      <trkpt lat="37.156720" lon="-112.051700">
        <ele>1658.925</ele>
        <time>2018-12-29T03:21:22Z</time>
      </trkpt>
      <trkpt lat="37.157180" lon="-112.050960">
        <ele>1659.017</ele>
        <time>2018-12-29T03:21:42Z</time>
      </trkpt>
      <trkpt lat="37.157860" lon="-112.049830">
        <ele>1658.608</ele>
        <time>2018-12-29T03:22:02Z</time>
      </trkpt>
      <trkpt lat="37.158480" lon="-112.048800">
        <ele>1659.071</ele>
        <time>2018-12-29T03:22:22Z</time>
      </trkpt>
      <trkpt lat="37.158820" lon="-112.048200">
        <ele>1658.899</ele>
        <time>2018-12-29T03:22:42Z</time>
      </trkpt>
      <trkpt lat="37.159140" lon="-112.047620">
        <ele>1658.794</ele>
        <time>2018-12-29T03:23:02Z</time>
      </trkpt>
      <trkpt lat="37.159510" lon="-112.046960">
        <ele>1658.575</ele>
        <time>2018-12-29T03:23:22Z</time>
      </trkpt>
      <trkpt lat="37.159800" lon="-112.046400">
        <ele>1658.699</ele>
        <time>2018-12-29T03:23:42Z</time>
      </trkpt>
      <trkpt lat="37.160330" lon="-112.045380">
        <ele>1658.473</ele>
        <time>2018-12-29T03:24:02Z</time>
      </trkpt>
      <trkpt lat="37.160810" lon="-112.044440">
        <ele>1657.812</ele>
        <time>2018-12-29T03:24:22Z</time>
      </trkpt>
      <trkpt lat="37.163420" lon="-112.039310">
        <ele>1652.297</ele>
        <time>2018-12-29T03:24:42Z</time>
      </trkpt>
      <trkpt lat="37.164670" lon="-112.036830">
        <ele>1649.225</ele>
        <time>2018-12-29T03:25:02Z</time>
      </trkpt>
      <trkpt lat="37.165530" lon="-112.035140">
        <ele>1646.926</ele>
        <time>2018-12-29T03:25:22Z</time>
      </trkpt>
      <trkpt lat="37.166350" lon="-112.033520">
        <ele>1645.508</ele>
        <time>2018-12-29T03:25:42Z</time>
      </trkpt>
      <trkpt lat="37.175810" lon="-112.014890">
        <ele>1628.908</ele>
        <time>2018-12-29T03:26:02Z</time>
      </trkpt>
      <trkpt lat="37.177680" lon="-112.011170">
        <ele>1622.975</ele>
        <time>2018-12-29T03:26:22Z</time>
      </trkpt>
      <trkpt lat="37.178160" lon="-112.010250">
        <ele>1623.013</ele>
        <time>2018-12-29T03:26:42Z</time>
      </trkpt>
      <trkpt lat="37.178750" lon="-112.009070">
        <ele>1623.298</ele>
        <time>2018-12-29T03:27:02Z</time>
      </trkpt>
      <trkpt lat="37.180460" lon="-112.005720">
        <ele>1623.379</ele>
        <time>2018-12-29T03:27:22Z</time>
      </trkpt>
      <trkpt lat="37.182730" lon="-112.001250">
        <ele>1629.093</ele>
        <time>2018-12-29T03:27:42Z</time>
      </trkpt>
      <trkpt lat="37.183860" lon="-111.999050">
        <ele>1631.967</ele>
        <time>2018-12-29T03:28:02Z</time>
      </trkpt>
      <trkpt lat="37.184340" lon="-111.998080">
        <ele>1630.556</ele>
        <time>2018-12-29T03:28:22Z</time>
      </trkpt>
      <trkpt lat="37.184400" lon="-111.997970">
        <ele>1630.481</ele>
        <time>2018-12-29T03:28:42Z</time>
      </trkpt>
      <trkpt lat="37.184540" lon="-111.997720">
        <ele>1630.277</ele>
        <time>2018-12-29T03:29:02Z</time>
      </trkpt>
      <trkpt lat="37.184650" lon="-111.997490">
        <ele>1630.261</ele>
        <time>2018-12-29T03:29:22Z</time>
      </trkpt>
      <trkpt lat="37.184770" lon="-111.997250">
        <ele>1630.227</ele>
        <time>2018-12-29T03:29:42Z</time>
      </trkpt>
      <trkpt lat="37.184850" lon="-111.997070">
        <ele>1630.408</ele>
        <time>2018-12-29T03:30:02Z</time>
      </trkpt>
      <trkpt lat="37.184920" lon="-111.996890">
        <ele>1630.220</ele>
        <time>2018-12-29T03:30:22Z</time>
      </trkpt>
      <trkpt lat="37.184990" lon="-111.996740">
        <ele>1630.128</ele>
        <time>2018-12-29T03:30:42Z</time>
      </trkpt>
      <trkpt lat="37.185070" lon="-111.996540">
        <ele>1629.953</ele>
        <time>2018-12-29T03:31:02Z</time>
      </trkpt>
      <trkpt lat="37.185140" lon="-111.996360">
        <ele>1629.634</ele>
        <time>2018-12-29T03:31:22Z</time>
      </trkpt>
      <trkpt lat="37.185370" lon="-111.995670">
        <ele>1628.418</ele>
        <time>2018-12-29T03:31:42Z</time>
      </trkpt>
      <trkpt lat="37.185430" lon="-111.995500">
        <ele>1627.862</ele>
        <time>2018-12-29T03:32:02Z</time>
      </trkpt>
      <trkpt lat="37.185580" lon="-111.995020">
        <ele>1626.361</ele>
        <time>2018-12-29T03:32:22Z</time>
      </trkpt>
      <trkpt lat="37.185770" lon="-111.994300">
        <ele>1623.786</ele>
        <time>2018-12-29T03:32:42Z</time>
      </trkpt>
      <trkpt lat="37.185840" lon="-111.994030">
        <ele>1623.054</ele>
        <time>2018-12-29T03:33:02Z</time>
      </trkpt>
      <trkpt lat="37.185940" lon="-111.993540">
        <ele>1622.756</ele>
        <time>2018-12-29T03:33:22Z</time>
      </trkpt>
      <trkpt lat="37.186010" lon="-111.993190">
        <ele>1622.611</ele>
        <time>2018-12-29T03:33:42Z</time>
      </trkpt>
      <trkpt lat="37.186060" lon="-111.992880">
        <ele>1622.508</ele>
        <time>2018-12-29T03:34:02Z</time>
      </trkpt>
      <trkpt lat="37.186140" lon="-111.992350">
        <ele>1622.518</ele>
        <time>2018-12-29T03:34:22Z</time>
      </trkpt>
      <trkpt lat="37.186210" lon="-111.991790">
        <ele>1622.596</ele>
        <time>2018-12-29T03:34:42Z</time>
      </trkpt>
      <trkpt lat="37.186240" lon="-111.991410">
        <ele>1622.471</ele>
        <time>2018-12-29T03:35:02Z</time>
      </trkpt>
      <trkpt lat="37.186270" lon="-111.991080">
        <ele>1621.752</ele>
        <time>2018-12-29T03:35:22Z</time>
      </trkpt>
      <trkpt lat="37.186290" lon="-111.990810">
        <ele>1621.076</ele>
        <time>2018-12-29T03:35:42Z</time>
      </trkpt>
      <trkpt lat="37.186300" lon="-111.990470">
        <ele>1619.940</ele>
        <time>2018-12-29T03:36:02Z</time>
      </trkpt>
      <trkpt lat="37.186310" lon="-111.989960">
        <ele>1618.579</ele>
        <time>2018-12-29T03:36:22Z</time>
      </trkpt>
      <trkpt lat="37.186310" lon="-111.989490">
        <ele>1616.454</ele>
        <time>2018-12-29T03:36:42Z</time>
      </trkpt>
      <trkpt lat="37.186300" lon="-111.989000">
        <ele>1614.636</ele>
        <time>2018-12-29T03:37:02Z</time>
      </trkpt>
      <trkpt lat="37.186280" lon="-111.988700">
        <ele>1614.317</ele>
        <time>2018-12-29T03:37:22Z</time>
      </trkpt>
      <trkpt lat="37.186260" lon="-111.988400">
        <ele>1613.918</ele>
        <time>2018-12-29T03:37:42Z</time>
      </trkpt>
      <trkpt lat="37.186230" lon="-111.987970">
        <ele>1613.508</ele>
        <time>2018-12-29T03:38:02Z</time>
      </trkpt>
      <trkpt lat="37.186190" lon="-111.987610">
        <ele>1613.356</ele>
        <time>2018-12-29T03:38:22Z</time>
      </trkpt>
      <trkpt lat="37.186140" lon="-111.987190">
        <ele>1613.714</ele>
        <time>2018-12-29T03:38:42Z</time>
      </trkpt>
      <trkpt lat="37.186080" lon="-111.986760">
        <ele>1615.119</ele>
        <time>2018-12-29T03:39:02Z</time>
      </trkpt>
      <trkpt lat="37.185890" lon="-111.985780">
        <ele>1616.810</ele>
        <time>2018-12-29T03:39:22Z</time>
      </trkpt>
      <trkpt lat="37.185730" lon="-111.985120">
        <ele>1616.164</ele>
        <time>2018-12-29T03:39:42Z</time>
      </trkpt>
      <trkpt lat="37.185660" lon="-111.984850">
        <ele>1615.148</ele>
        <time>2018-12-29T03:40:02Z</time>
      </trkpt>
      <trkpt lat="37.185560" lon="-111.984510">
        <ele>1613.847</ele>
        <time>2018-12-29T03:40:22Z</time>
      </trkpt>
      <trkpt lat="37.185410" lon="-111.984050">
        <ele>1613.052</ele>
        <time>2018-12-29T03:40:42Z</time>
      </trkpt>
      <trkpt lat="37.185240" lon="-111.983590">
        <ele>1611.698</ele>
        <time>2018-12-29T03:41:02Z</time>
      </trkpt>
      <trkpt lat="37.184960" lon="-111.982850">
        <ele>1610.215</ele>
        <time>2018-12-29T03:41:22Z</time>
      </trkpt>
      <trkpt lat="37.184560" lon="-111.981980">
        <ele>1606.026</ele>
        <time>2018-12-29T03:41:42Z</time>
      </trkpt>
      <trkpt lat="37.184300" lon="-111.981440">
        <ele>1603.908</ele>
        <time>2018-12-29T03:42:02Z</time>
      </trkpt>
      <trkpt lat="37.183970" lon="-111.980840">
        <ele>1602.752</ele>
        <time>2018-12-29T03:42:22Z</time>
      </trkpt>
      <trkpt lat="37.183600" lon="-111.980250">
        <ele>1602.020</ele>
        <time>2018-12-29T03:42:42Z</time>
      </trkpt>
      <trkpt lat="37.182990" lon="-111.979390">
        <ele>1600.085</ele>
        <time>2018-12-29T03:43:02Z</time>
      </trkpt>
      <trkpt lat="37.182210" lon="-111.978440">
        <ele>1593.146</ele>
        <time>2018-12-29T03:43:22Z</time>
      </trkpt>
      <trkpt lat="37.181770" lon="-111.978020">
        <ele>1592.710</ele>
        <time>2018-12-29T03:43:42Z</time>
      </trkpt>
      <trkpt lat="37.181510" lon="-111.977750">
        <ele>1592.094</ele>
        <time>2018-12-29T03:44:02Z</time>
      </trkpt>
      <trkpt lat="37.181030" lon="-111.977320">
        <ele>1586.413</ele>
        <time>2018-12-29T03:44:22Z</time>
      </trkpt>
      <trkpt lat="37.180640" lon="-111.976990">
        <ele>1583.398</ele>
        <time>2018-12-29T03:44:42Z</time>
      </trkpt>
      <trkpt lat="37.180310" lon="-111.976730">
        <ele>1581.767</ele>
        <time>2018-12-29T03:45:02Z</time>
      </trkpt>
      <trkpt lat="37.179930" lon="-111.976470">
        <ele>1580.581</ele>
        <time>2018-12-29T03:45:22Z</time>
      </trkpt>
      <trkpt lat="37.179590" lon="-111.976250">
        <ele>1580.219</ele>
        <time>2018-12-29T03:45:42Z</time>
      </trkpt>
      <trkpt lat="37.179320" lon="-111.976090">
        <ele>1579.208</ele>
        <time>2018-12-29T03:46:02Z</time>
      </trkpt>
      <trkpt lat="37.179170" lon="-111.976010">
        <ele>1580.319</ele>
        <time>2018-12-29T03:46:22Z</time>
      </trkpt>
      <trkpt lat="37.179140" lon="-111.975970">
        <ele>1580.217</ele>
        <time>2018-12-29T03:46:42Z</time>
      </trkpt>
      <trkpt lat="37.178880" lon="-111.975830">
        <ele>1578.542</ele>
        <time>2018-12-29T03:47:02Z</time>
      </trkpt>
      <trkpt lat="37.178740" lon="-111.975760">
        <ele>1577.143</ele>
        <time>2018-12-29T03:47:22Z</time>
      </trkpt>
      <trkpt lat="37.178480" lon="-111.975650">
        <ele>1573.997</ele>
        <time>2018-12-29T03:47:42Z</time>
      </trkpt>
      <trkpt lat="37.178320" lon="-111.975580">
        <ele>1572.541</ele>
        <time>2018-12-29T03:48:02Z</time>
      </trkpt>
      <trkpt lat="37.178170" lon="-111.975510">
        <ele>1571.160</ele>
        <time>2018-12-29T03:48:22Z</time>
      </trkpt>
      <trkpt lat="37.177550" lon="-111.975240">
        <ele>1565.455</ele>
        <time>2018-12-29T03:48:42Z</time>
      </trkpt>
      <trkpt lat="37.167870" lon="-111.971670">
        <ele>1514.066</ele>
        <time>2018-12-29T03:49:02Z</time>
      </trkpt>
      <trkpt lat="37.166000" lon="-111.970990">
        <ele>1505.429</ele>
        <time>2018-12-29T03:49:22Z</time>
      </trkpt>
      <trkpt lat="37.164860" lon="-111.970580">
        <ele>1503.421</ele>
        <time>2018-12-29T03:49:42Z</time>
      </trkpt>
      <trkpt lat="37.164200" lon="-111.970330">
        <ele>1503.408</ele>
        <time>2018-12-29T03:50:02Z</time>
      </trkpt>
      <trkpt lat="37.163400" lon="-111.970080">
        <ele>1503.449</ele>
        <time>2018-12-29T03:50:22Z</time>
      </trkpt>
      <trkpt lat="37.161910" lon="-111.969730">
        <ele>1503.437</ele>
        <time>2018-12-29T03:50:42Z</time>
      </trkpt>
      <trkpt lat="37.161320" lon="-111.969640">
        <ele>1503.452</ele>
        <time>2018-12-29T03:51:02Z</time>
      </trkpt>
      <trkpt lat="37.160690" lon="-111.969550">
        <ele>1504.573</ele>
        <time>2018-12-29T03:51:22Z</time>
      </trkpt>
      <trkpt lat="37.159970" lon="-111.969500">
        <ele>1507.737</ele>
        <time>2018-12-29T03:51:42Z</time>
      </trkpt>
      <trkpt lat="37.159670" lon="-111.969490">
        <ele>1509.321</ele>
        <time>2018-12-29T03:52:02Z</time>
      </trkpt>
      <trkpt lat="37.158940" lon="-111.969460">
        <ele>1509.760</ele>
        <time>2018-12-29T03:52:22Z</time>
      </trkpt>
      <trkpt lat="37.157920" lon="-111.969480">
        <ele>1502.835</ele>
        <time>2018-12-29T03:52:42Z</time>
      </trkpt>
      <trkpt lat="37.156510" lon="-111.969610">
        <ele>1503.247</ele>
        <time>2018-12-29T03:53:02Z</time>
      </trkpt>
      <trkpt lat="37.155050" lon="-111.969870">
        <ele>1500.329</ele>
        <time>2018-12-29T03:53:22Z</time>
      </trkpt>
      <trkpt lat="37.154440" lon="-111.970010">
        <ele>1498.921</ele>
        <time>2018-12-29T03:53:42Z</time>
      </trkpt>
      <trkpt lat="37.149980" lon="-111.971340">
        <ele>1493.008</ele>
        <time>2018-12-29T03:54:02Z</time>
      </trkpt>
      <trkpt lat="37.148800" lon="-111.971700">
        <ele>1490.927</ele>
        <time>2018-12-29T03:54:22Z</time>
      </trkpt>
      <trkpt lat="37.148420" lon="-111.971810">
        <ele>1490.045</ele>
        <time>2018-12-29T03:54:42Z</time>
      </trkpt>
      <trkpt lat="37.145030" lon="-111.972850">
        <ele>1486.720</ele>
        <time>2018-12-29T03:55:02Z</time>
      </trkpt>
      <trkpt lat="37.143860" lon="-111.973190">
        <ele>1484.921</ele>
        <time>2018-12-29T03:55:22Z</time>
      </trkpt>
      <trkpt lat="37.138230" lon="-111.974890">
        <ele>1478.245</ele>
        <time>2018-12-29T03:55:42Z</time>
      </trkpt>
      <trkpt lat="37.137780" lon="-111.975030">
        <ele>1479.639</ele>
        <time>2018-12-29T03:56:02Z</time>
      </trkpt>
      <trkpt lat="37.136790" lon="-111.975330">
        <ele>1483.818</ele>
        <time>2018-12-29T03:56:22Z</time>
      </trkpt>
      <trkpt lat="37.136150" lon="-111.975520">
        <ele>1484.743</ele>
        <time>2018-12-29T03:56:42Z</time>
      </trkpt>
      <trkpt lat="37.134580" lon="-111.975990">
        <ele>1484.013</ele>
        <time>2018-12-29T03:57:02Z</time>
      </trkpt>
      <trkpt lat="37.133320" lon="-111.976370">
        <ele>1485.743</ele>
        <time>2018-12-29T03:57:22Z</time>
      </trkpt>
      <trkpt lat="37.132840" lon="-111.976510">
        <ele>1485.507</ele>
        <time>2018-12-29T03:57:42Z</time>
      </trkpt>
      <trkpt lat="37.132230" lon="-111.976650">
        <ele>1486.108</ele>
        <time>2018-12-29T03:58:02Z</time>
      </trkpt>
      <trkpt lat="37.131650" lon="-111.976760">
        <ele>1482.294</ele>
        <time>2018-12-29T03:58:22Z</time>
      </trkpt>
      <trkpt lat="37.131010" lon="-111.976830">
        <ele>1480.232</ele>
        <time>2018-12-29T03:58:42Z</time>
      </trkpt>
      <trkpt lat="37.130450" lon="-111.976870">
        <ele>1479.587</ele>
        <time>2018-12-29T03:59:02Z</time>
      </trkpt>
      <trkpt lat="37.130100" lon="-111.976890">
        <ele>1478.938</ele>
        <time>2018-12-29T03:59:22Z</time>
      </trkpt>
      <trkpt lat="37.129470" lon="-111.976910">
        <ele>1475.722</ele>
        <time>2018-12-29T03:59:42Z</time>
      </trkpt>
      <trkpt lat="37.128820" lon="-111.976870">
        <ele>1471.516</ele>
        <time>2018-12-29T04:00:02Z</time>
      </trkpt>
      <trkpt lat="37.128460" lon="-111.976850">
        <ele>1470.615</ele>
        <time>2018-12-29T04:00:22Z</time>
      </trkpt>
      <trkpt lat="37.127760" lon="-111.976820">
        <ele>1471.170</ele>
        <time>2018-12-29T04:00:42Z</time>
      </trkpt>
      <trkpt lat="37.126800" lon="-111.976760">
        <ele>1467.165</ele>
        <time>2018-12-29T04:01:02Z</time>
      </trkpt>
      <trkpt lat="37.126330" lon="-111.976740">
        <ele>1466.268</ele>
        <time>2018-12-29T04:01:22Z</time>
      </trkpt>
      <trkpt lat="37.125820" lon="-111.976580">
        <ele>1463.914</ele>
        <time>2018-12-29T04:01:42Z</time>
      </trkpt>
      <trkpt lat="37.125440" lon="-111.976410">
        <ele>1462.508</ele>
        <time>2018-12-29T04:02:02Z</time>
      </trkpt>
      <trkpt lat="37.125190" lon="-111.976270">
        <ele>1463.399</ele>
        <time>2018-12-29T04:02:22Z</time>
      </trkpt>
      <trkpt lat="37.124910" lon="-111.976060">
        <ele>1463.017</ele>
        <time>2018-12-29T04:02:42Z</time>
      </trkpt>
      <trkpt lat="37.124550" lon="-111.975660">
        <ele>1468.942</ele>
        <time>2018-12-29T04:03:02Z</time>
      </trkpt>
      <trkpt lat="37.124310" lon="-111.975300">
        <ele>1473.633</ele>
        <time>2018-12-29T04:03:22Z</time>
      </trkpt>
      <trkpt lat="37.124220" lon="-111.975160">
        <ele>1475.957</ele>
        <time>2018-12-29T04:03:42Z</time>
      </trkpt>
      <trkpt lat="37.124110" lon="-111.974950">
        <ele>1478.691</ele>
        <time>2018-12-29T04:04:02Z</time>
      </trkpt>
      <trkpt lat="37.124030" lon="-111.974730">
        <ele>1480.370</ele>
        <time>2018-12-29T04:04:22Z</time>
      </trkpt>
      <trkpt lat="37.123940" lon="-111.974480">
        <ele>1482.145</ele>
        <time>2018-12-29T04:04:42Z</time>
      </trkpt>
      <trkpt lat="37.123860" lon="-111.974180">
        <ele>1481.394</ele>
        <time>2018-12-29T04:05:02Z</time>
      </trkpt>
      <trkpt lat="37.123820" lon="-111.974030">
        <ele>1480.457</ele>
        <time>2018-12-29T04:05:22Z</time>
      </trkpt>
      <trkpt lat="37.123800" lon="-111.973860">
        <ele>1479.022</ele>
        <time>2018-12-29T04:05:42Z</time>
      </trkpt>
      <trkpt lat="37.123770" lon="-111.973710">
        <ele>1477.208</ele>
        <time>2018-12-29T04:06:02Z</time>
      </trkpt>
      <trkpt lat="37.123760" lon="-111.973600">
        <ele>1476.732</ele>
        <time>2018-12-29T04:06:22Z</time>
      </trkpt>
      <trkpt lat="37.123740" lon="-111.973430">
        <ele>1475.630</ele>
        <time>2018-12-29T04:06:42Z</time>
      </trkpt>
      <trkpt lat="37.123730" lon="-111.973260">
        <ele>1472.375</ele>
        <time>2018-12-29T04:07:02Z</time>
      </trkpt>
      <trkpt lat="37.123730" lon="-111.973030">
        <ele>1470.596</ele>
        <time>2018-12-29T04:07:22Z</time>
      </trkpt>
      <trkpt lat="37.123750" lon="-111.972740">
        <ele>1469.410</ele>
        <time>2018-12-29T04:07:42Z</time>
      </trkpt>
      <trkpt lat="37.123780" lon="-111.972460">
        <ele>1466.664</ele>
        <time>2018-12-29T04:08:02Z</time>
      </trkpt>
      <trkpt lat="37.123830" lon="-111.972220">
        <ele>1463.323</ele>
        <time>2018-12-29T04:08:22Z</time>
      </trkpt>
      <trkpt lat="37.123900" lon="-111.971960">
        <ele>1461.228</ele>
        <time>2018-12-29T04:08:42Z</time>
      </trkpt>
      <trkpt lat="37.123950" lon="-111.971770">
        <ele>1460.598</ele>
        <time>2018-12-29T04:09:02Z</time>
      </trkpt>
      <trkpt lat="37.124030" lon="-111.971580">
        <ele>1460.415</ele>
        <time>2018-12-29T04:09:22Z</time>
      </trkpt>
      <trkpt lat="37.124120" lon="-111.971370">
        <ele>1458.026</ele>
        <time>2018-12-29T04:09:42Z</time>
      </trkpt>
      <trkpt lat="37.124190" lon="-111.971230">
        <ele>1456.808</ele>
        <time>2018-12-29T04:10:02Z</time>
      </trkpt>
      <trkpt lat="37.124250" lon="-111.971110">
        <ele>1456.522</ele>
        <time>2018-12-29T04:10:22Z</time>
      </trkpt>
      <trkpt lat="37.124350" lon="-111.970950">
        <ele>1456.750</ele>
        <time>2018-12-29T04:10:42Z</time>
      </trkpt>
      <trkpt lat="37.124460" lon="-111.970770">
        <ele>1457.195</ele>
        <time>2018-12-29T04:11:02Z</time>
      </trkpt>
      <trkpt lat="37.124950" lon="-111.970010">
        <ele>1454.886</ele>
        <time>2018-12-29T04:11:22Z</time>
      </trkpt>
      <trkpt lat="37.125930" lon="-111.968510">
        <ele>1449.950</ele>
        <time>2018-12-29T04:11:42Z</time>
      </trkpt>
      <trkpt lat="37.126210" lon="-111.968080">
        <ele>1447.054</ele>
        <time>2018-12-29T04:12:02Z</time>
      </trkpt>
      <trkpt lat="37.126600" lon="-111.967420">
        <ele>1442.633</ele>
        <time>2018-12-29T04:12:22Z</time>
      </trkpt>
      <trkpt lat="37.126670" lon="-111.967290">
        <ele>1442.438</ele>
        <time>2018-12-29T04:12:42Z</time>
      </trkpt>
      <trkpt lat="37.126730" lon="-111.967180">
        <ele>1442.463</ele>
        <time>2018-12-29T04:13:02Z</time>
      </trkpt>
      <trkpt lat="37.126760" lon="-111.967120">
        <ele>1442.544</ele>
        <time>2018-12-29T04:13:22Z</time>
      </trkpt>
      <trkpt lat="37.126850" lon="-111.966950">
        <ele>1443.218</ele>
        <time>2018-12-29T04:13:42Z</time>
      </trkpt>
      <trkpt lat="37.126910" lon="-111.966830">
        <ele>1443.908</ele>
        <time>2018-12-29T04:14:02Z</time>
      </trkpt>
      <trkpt lat="37.126940" lon="-111.966750">
        <ele>1444.779</ele>
        <time>2018-12-29T04:14:22Z</time>
      </trkpt>
      <trkpt lat="37.126990" lon="-111.966660">
        <ele>1446.247</ele>
        <time>2018-12-29T04:14:42Z</time>
      </trkpt>
      <trkpt lat="37.127040" lon="-111.966520">
        <ele>1448.772</ele>
        <time>2018-12-29T04:15:02Z</time>
      </trkpt>
      <trkpt lat="37.127140" lon="-111.966240">
        <ele>1447.653</ele>
        <time>2018-12-29T04:15:22Z</time>
      </trkpt>
      <trkpt lat="37.127290" lon="-111.965840">
        <ele>1445.587</ele>
        <time>2018-12-29T04:15:42Z</time>
      </trkpt>
      <trkpt lat="37.127400" lon="-111.965490">
        <ele>1443.591</ele>
        <time>2018-12-29T04:16:02Z</time>
      </trkpt>
      <trkpt lat="37.127490" lon="-111.965100">
        <ele>1439.450</ele>
        <time>2018-12-29T04:16:22Z</time>
      </trkpt>
      <trkpt lat="37.127570" lon="-111.964740">
        <ele>1436.975</ele>
        <time>2018-12-29T04:16:42Z</time>
      </trkpt>
      <trkpt lat="37.127610" lon="-111.964530">
        <ele>1436.392</ele>
        <time>2018-12-29T04:17:02Z</time>
      </trkpt>
      <trkpt lat="37.127640" lon="-111.964370">
        <ele>1436.173</ele>
        <time>2018-12-29T04:17:22Z</time>
      </trkpt>
      <trkpt lat="37.127680" lon="-111.964070">
        <ele>1437.320</ele>
        <time>2018-12-29T04:17:42Z</time>
      </trkpt>
      <trkpt lat="37.127700" lon="-111.963850">
        <ele>1438.008</ele>
        <time>2018-12-29T04:18:02Z</time>
      </trkpt>
      <trkpt lat="37.127720" lon="-111.963510">
        <ele>1438.022</ele>
        <time>2018-12-29T04:18:22Z</time>
      </trkpt>
      <trkpt lat="37.127740" lon="-111.963170">
        <ele>1433.860</ele>
        <time>2018-12-29T04:18:42Z</time>
      </trkpt>
      <trkpt lat="37.127760" lon="-111.962260">
        <ele>1428.075</ele>
        <time>2018-12-29T04:19:02Z</time>
      </trkpt>
      <trkpt lat="37.127840" lon="-111.959280">
        <ele>1401.176</ele>
        <time>2018-12-29T04:19:22Z</time>
      </trkpt>
      <trkpt lat="37.127880" lon="-111.957900">
        <ele>1387.790</ele>
        <time>2018-12-29T04:19:42Z</time>
      </trkpt>
      <trkpt lat="37.127890" lon="-111.957560">
        <ele>1382.814</ele>
        <time>2018-12-29T04:20:02Z</time>
      </trkpt>
      <trkpt lat="37.127900" lon="-111.956870">
        <ele>1378.863</ele>
        <time>2018-12-29T04:20:22Z</time>
      </trkpt>
      <trkpt lat="37.127870" lon="-111.956190">
        <ele>1378.288</ele>
        <time>2018-12-29T04:20:42Z</time>
      </trkpt>
      <trkpt lat="37.127850" lon="-111.955840">
        <ele>1377.954</ele>
        <time>2018-12-29T04:21:02Z</time>
      </trkpt>
      <trkpt lat="37.127810" lon="-111.955430">
        <ele>1378.056</ele>
        <time>2018-12-29T04:21:22Z</time>
      </trkpt>
      <trkpt lat="37.127750" lon="-111.955050">
        <ele>1378.111</ele>
        <time>2018-12-29T04:21:42Z</time>
      </trkpt>
      <trkpt lat="37.127600" lon="-111.954340">
        <ele>1378.208</ele>
        <time>2018-12-29T04:22:02Z</time>
      </trkpt>
      <trkpt lat="37.127500" lon="-111.953940">
        <ele>1378.228</ele>
        <time>2018-12-29T04:22:22Z</time>
      </trkpt>
      <trkpt lat="37.127430" lon="-111.953680">
        <ele>1378.376</ele>
        <time>2018-12-29T04:22:42Z</time>
      </trkpt>
      <trkpt lat="37.127400" lon="-111.953560">
        <ele>1378.391</ele>
        <time>2018-12-29T04:23:02Z</time>
      </trkpt>
      <trkpt lat="37.127300" lon="-111.953240">
        <ele>1378.152</ele>
        <time>2018-12-29T04:23:22Z</time>
      </trkpt>
      <trkpt lat="37.127240" lon="-111.953050">
        <ele>1378.186</ele>
        <time>2018-12-29T04:23:42Z</time>
      </trkpt>
      <trkpt lat="37.127160" lon="-111.952860">
        <ele>1378.270</ele>
        <time>2018-12-29T04:24:02Z</time>
      </trkpt>
      <trkpt lat="37.127010" lon="-111.952450">
        <ele>1378.379</ele>
        <time>2018-12-29T04:24:22Z</time>
      </trkpt>
      <trkpt lat="37.126840" lon="-111.952070">
        <ele>1378.214</ele>
        <time>2018-12-29T04:24:42Z</time>
      </trkpt>
      <trkpt lat="37.126700" lon="-111.951760">
        <ele>1378.668</ele>
        <time>2018-12-29T04:25:02Z</time>
      </trkpt>
      <trkpt lat="37.126540" lon="-111.951440">
        <ele>1378.842</ele>
        <time>2018-12-29T04:25:22Z</time>
      </trkpt>
      <trkpt lat="37.126210" lon="-111.950870">
        <ele>1377.826</ele>
        <time>2018-12-29T04:25:42Z</time>
      </trkpt>
      <trkpt lat="37.125930" lon="-111.950440">
        <ele>1377.508</ele>
        <time>2018-12-29T04:26:02Z</time>
      </trkpt>
      <trkpt lat="37.125530" lon="-111.949900">
        <ele>1377.899</ele>
        <time>2018-12-29T04:26:22Z</time>
      </trkpt>
      <trkpt lat="37.124960" lon="-111.949100">
        <ele>1375.267</ele>
        <time>2018-12-29T04:26:42Z</time>
      </trkpt>
      <trkpt lat="37.114540" lon="-111.934770">
        <ele>1354.382</ele>
        <time>2018-12-29T04:27:02Z</time>
      </trkpt>
      <trkpt lat="37.113670" lon="-111.933340">
        <ele>1353.313</ele>
        <time>2018-12-29T04:27:22Z</time>
      </trkpt>
      <trkpt lat="37.112920" lon="-111.932020">
        <ele>1351.527</ele>
        <time>2018-12-29T04:27:42Z</time>
      </trkpt>
      <trkpt lat="37.112280" lon="-111.930620">
        <ele>1351.041</ele>
        <time>2018-12-29T04:28:02Z</time>
      </trkpt>
      <trkpt lat="37.111950" lon="-111.929880">
        <ele>1351.350</ele>
        <time>2018-12-29T04:28:22Z</time>
      </trkpt>
      <trkpt lat="37.111610" lon="-111.929040">
        <ele>1351.585</ele>
        <time>2018-12-29T04:28:42Z</time>
      </trkpt>
      <trkpt lat="37.111110" lon="-111.927590">
        <ele>1351.564</ele>
        <time>2018-12-29T04:29:02Z</time>
      </trkpt>
      <trkpt lat="37.110770" lon="-111.926480">
        <ele>1350.506</ele>
        <time>2018-12-29T04:29:22Z</time>
      </trkpt>
      <trkpt lat="37.110490" lon="-111.925410">
        <ele>1349.316</ele>
        <time>2018-12-29T04:29:42Z</time>
      </trkpt>
      <trkpt lat="37.110250" lon="-111.924240">
        <ele>1349.208</ele>
        <time>2018-12-29T04:30:02Z</time>
      </trkpt>
      <trkpt lat="37.109950" lon="-111.922420">
        <ele>1351.559</ele>
        <time>2018-12-29T04:30:22Z</time>
      </trkpt>
      <trkpt lat="37.108950" lon="-111.915570">
        <ele>1341.577</ele>
        <time>2018-12-29T04:30:42Z</time>
      </trkpt>
      <trkpt lat="37.108500" lon="-111.912410">
        <ele>1336.482</ele>
        <time>2018-12-29T04:31:02Z</time>
      </trkpt>
      <trkpt lat="37.108240" lon="-111.910640">
        <ele>1334.343</ele>
        <time>2018-12-29T04:31:22Z</time>
      </trkpt>
      <trkpt lat="37.108190" lon="-111.910240">
        <ele>1333.887</ele>
        <time>2018-12-29T04:31:42Z</time>
      </trkpt>
      <trkpt lat="37.107870" lon="-111.907990">
        <ele>1331.191</ele>
        <time>2018-12-29T04:32:02Z</time>
      </trkpt>
      <trkpt lat="37.107620" lon="-111.906280">
        <ele>1329.610</ele>
        <time>2018-12-29T04:32:22Z</time>
      </trkpt>
      <trkpt lat="37.107580" lon="-111.905910">
        <ele>1329.635</ele>
        <time>2018-12-29T04:32:42Z</time>
      </trkpt>
      <trkpt lat="37.106670" lon="-111.899650">
        <ele>1346.835</ele>
        <time>2018-12-29T04:33:02Z</time>
      </trkpt>
      <trkpt lat="37.106250" lon="-111.896680">
        <ele>1340.486</ele>
        <time>2018-12-29T04:33:22Z</time>
      </trkpt>
      <trkpt lat="37.105900" lon="-111.894290">
        <ele>1339.014</ele>
        <time>2018-12-29T04:33:42Z</time>
      </trkpt>
      <trkpt lat="37.105760" lon="-111.893460">
        <ele>1340.308</ele>
        <time>2018-12-29T04:34:02Z</time>
      </trkpt>
      <trkpt lat="37.105710" lon="-111.893170">
        <ele>1340.776</ele>
        <time>2018-12-29T04:34:22Z</time>
      </trkpt>
      <trkpt lat="37.105610" lon="-111.892720">
        <ele>1341.644</ele>
        <time>2018-12-29T04:34:42Z</time>
      </trkpt>
      <trkpt lat="37.105340" lon="-111.891430">
        <ele>1342.169</ele>
        <time>2018-12-29T04:35:02Z</time>
      </trkpt>
      <trkpt lat="37.105170" lon="-111.890700">
        <ele>1341.520</ele>
        <time>2018-12-29T04:35:22Z</time>
      </trkpt>
      <trkpt lat="37.104700" lon="-111.888880">
        <ele>1334.834</ele>
        <time>2018-12-29T04:35:42Z</time>
      </trkpt>
      <trkpt lat="37.103800" lon="-111.885490">
        <ele>1338.788</ele>
        <time>2018-12-29T04:36:02Z</time>
      </trkpt>
      <trkpt lat="37.102460" lon="-111.880400">
        <ele>1340.347</ele>
        <time>2018-12-29T04:36:22Z</time>
      </trkpt>
      <trkpt lat="37.101940" lon="-111.878500">
        <ele>1347.152</ele>
        <time>2018-12-29T04:36:42Z</time>
      </trkpt>
      <trkpt lat="37.101230" lon="-111.875780">
        <ele>1351.048</ele>
        <time>2018-12-29T04:37:02Z</time>
      </trkpt>
      <trkpt lat="37.100980" lon="-111.874820">
        <ele>1359.461</ele>
        <time>2018-12-29T04:37:22Z</time>
      </trkpt>
      <trkpt lat="37.099930" lon="-111.870830">
        <ele>1359.917</ele>
        <time>2018-12-29T04:37:42Z</time>
      </trkpt>
      <trkpt lat="37.099660" lon="-111.869840">
        <ele>1362.208</ele>
        <time>2018-12-29T04:38:02Z</time>
      </trkpt>
      <trkpt lat="37.099580" lon="-111.869500">
        <ele>1364.067</ele>
        <time>2018-12-29T04:38:22Z</time>
      </trkpt>
      <trkpt lat="37.099550" lon="-111.869370">
        <ele>1364.625</ele>
        <time>2018-12-29T04:38:42Z</time>
      </trkpt>
      <trkpt lat="37.099530" lon="-111.869200">
        <ele>1365.150</ele>
        <time>2018-12-29T04:39:02Z</time>
      </trkpt>
      <trkpt lat="37.099500" lon="-111.868990">
        <ele>1365.431</ele>
        <time>2018-12-29T04:39:22Z</time>
      </trkpt>
      <trkpt lat="37.099490" lon="-111.868670">
        <ele>1365.665</ele>
        <time>2018-12-29T04:39:42Z</time>
      </trkpt>
      <trkpt lat="37.099490" lon="-111.868380">
        <ele>1365.739</ele>
        <time>2018-12-29T04:40:02Z</time>
      </trkpt>
      <trkpt lat="37.099490" lon="-111.868170">
        <ele>1365.988</ele>
        <time>2018-12-29T04:40:22Z</time>
      </trkpt>
      <trkpt lat="37.099500" lon="-111.867990">
        <ele>1366.133</ele>
        <time>2018-12-29T04:40:42Z</time>
      </trkpt>
      <trkpt lat="37.099510" lon="-111.867860">
        <ele>1366.233</ele>
        <time>2018-12-29T04:41:02Z</time>
      </trkpt>
      <trkpt lat="37.099530" lon="-111.867730">
        <ele>1366.423</ele>
        <time>2018-12-29T04:41:22Z</time>
      </trkpt>
      <trkpt lat="37.099570" lon="-111.867480">
        <ele>1366.915</ele>
        <time>2018-12-29T04:41:42Z</time>
      </trkpt>
      <trkpt lat="37.099600" lon="-111.867370">
        <ele>1367.408</ele>
        <time>2018-12-29T04:42:02Z</time>
      </trkpt>
      <trkpt lat="37.099630" lon="-111.867230">
        <ele>1368.436</ele>
        <time>2018-12-29T04:42:22Z</time>
      </trkpt>
      <trkpt lat="37.099660" lon="-111.867130">
        <ele>1369.154</ele>
        <time>2018-12-29T04:42:42Z</time>
      </trkpt>
      <trkpt lat="37.099690" lon="-111.867010">
        <ele>1369.459</ele>
        <time>2018-12-29T04:43:02Z</time>
      </trkpt>
      <trkpt lat="37.099750" lon="-111.866850">
        <ele>1369.440</ele>
        <time>2018-12-29T04:43:22Z</time>
      </trkpt>
      <trkpt lat="37.099790" lon="-111.866750">
        <ele>1369.414</ele>
        <time>2018-12-29T04:43:42Z</time>
      </trkpt>
      <trkpt lat="37.099910" lon="-111.866430">
        <ele>1369.028</ele>
        <time>2018-12-29T04:44:02Z</time>
      </trkpt>
      <trkpt lat="37.100010" lon="-111.866250">
        <ele>1368.967</ele>
        <time>2018-12-29T04:44:22Z</time>
      </trkpt>
      <trkpt lat="37.100070" lon="-111.866120">
        <ele>1368.762</ele>
        <time>2018-12-29T04:44:42Z</time>
      </trkpt>
      <trkpt lat="37.100110" lon="-111.866050">
        <ele>1368.723</ele>
        <time>2018-12-29T04:45:02Z</time>
      </trkpt>
      <trkpt lat="37.100150" lon="-111.865970">
        <ele>1368.683</ele>
        <time>2018-12-29T04:45:22Z</time>
      </trkpt>
      <trkpt lat="37.100200" lon="-111.865910">
        <ele>1368.711</ele>
        <time>2018-12-29T04:45:42Z</time>
      </trkpt>
      <trkpt lat="37.100260" lon="-111.865810">
        <ele>1368.608</ele>
        <time>2018-12-29T04:46:02Z</time>
      </trkpt>
      <trkpt lat="37.100360" lon="-111.865680">
        <ele>1368.625</ele>
        <time>2018-12-29T04:46:22Z</time>
      </trkpt>
      <trkpt lat="37.100670" lon="-111.865240">
        <ele>1371.913</ele>
        <time>2018-12-29T04:46:42Z</time>
      </trkpt>
      <trkpt lat="37.100800" lon="-111.865060">
        <ele>1372.378</ele>
        <time>2018-12-29T04:47:02Z</time>
      </trkpt>
      <trkpt lat="37.100900" lon="-111.864940">
        <ele>1372.349</ele>
        <time>2018-12-29T04:47:22Z</time>
      </trkpt>
      <trkpt lat="37.101140" lon="-111.864600">
        <ele>1372.593</ele>
        <time>2018-12-29T04:47:42Z</time>
      </trkpt>
      <trkpt lat="37.102910" lon="-111.862110">
        <ele>1391.397</ele>
        <time>2018-12-29T04:48:02Z</time>
      </trkpt>
      <trkpt lat="37.103250" lon="-111.861560">
        <ele>1395.446</ele>
        <time>2018-12-29T04:48:22Z</time>
      </trkpt>
      <trkpt lat="37.103430" lon="-111.861210">
        <ele>1396.461</ele>
        <time>2018-12-29T04:48:42Z</time>
      </trkpt>
      <trkpt lat="37.103660" lon="-111.860690">
        <ele>1400.921</ele>
        <time>2018-12-29T04:49:02Z</time>
      </trkpt>
      <trkpt lat="37.103730" lon="-111.860530">
        <ele>1400.841</ele>
        <time>2018-12-29T04:49:22Z</time>
      </trkpt>
      <trkpt lat="37.103780" lon="-111.860390">
        <ele>1401.305</ele>
        <time>2018-12-29T04:49:42Z</time>
      </trkpt>
      <trkpt lat="37.103840" lon="-111.860210">
        <ele>1402.608</ele>
        <time>2018-12-29T04:50:02Z</time>
      </trkpt>
      <trkpt lat="37.103890" lon="-111.860040">
        <ele>1403.565</ele>
        <time>2018-12-29T04:50:22Z</time>
      </trkpt>
      <trkpt lat="37.103930" lon="-111.859900">
        <ele>1403.693</ele>
        <time>2018-12-29T04:50:42Z</time>
      </trkpt>
      <trkpt lat="37.103980" lon="-111.859710">
        <ele>1403.648</ele>
        <time>2018-12-29T04:51:02Z</time>
      </trkpt>
      <trkpt lat="37.104030" lon="-111.859480">
        <ele>1404.219</ele>
        <time>2018-12-29T04:51:22Z</time>
      </trkpt>
      <trkpt lat="37.104090" lon="-111.859180">
        <ele>1407.483</ele>
        <time>2018-12-29T04:51:42Z</time>
      </trkpt>
      <trkpt lat="37.104100" lon="-111.859080">
        <ele>1407.997</ele>
        <time>2018-12-29T04:52:02Z</time>
      </trkpt>
      <trkpt lat="37.104130" lon="-111.858860">
        <ele>1408.576</ele>
        <time>2018-12-29T04:52:22Z</time>
      </trkpt>
      <trkpt lat="37.104320" lon="-111.856320">
        <ele>1413.011</ele>
        <time>2018-12-29T04:52:42Z</time>
      </trkpt>
      <trkpt lat="37.104350" lon="-111.855980">
        <ele>1409.875</ele>
        <time>2018-12-29T04:53:02Z</time>
      </trkpt>
      <trkpt lat="37.104400" lon="-111.855260">
        <ele>1409.228</ele>
        <time>2018-12-29T04:53:22Z</time>
      </trkpt>
      <trkpt lat="37.104440" lon="-111.854540">
        <ele>1412.220</ele>
        <time>2018-12-29T04:53:42Z</time>
      </trkpt>
      <trkpt lat="37.104510" lon="-111.853610">
        <ele>1413.408</ele>
        <time>2018-12-29T04:54:02Z</time>
      </trkpt>
      <trkpt lat="37.104560" lon="-111.852840">
        <ele>1413.170</ele>
        <time>2018-12-29T04:54:22Z</time>
      </trkpt>
      <trkpt lat="37.104610" lon="-111.852090">
        <ele>1413.288</ele>
        <time>2018-12-29T04:54:42Z</time>
      </trkpt>
      <trkpt lat="37.104670" lon="-111.851200">
        <ele>1413.793</ele>
        <time>2018-12-29T04:55:02Z</time>
      </trkpt>
      <trkpt lat="37.104720" lon="-111.850360">
        <ele>1415.024</ele>
        <time>2018-12-29T04:55:22Z</time>
      </trkpt>
      <trkpt lat="37.104770" lon="-111.849630">
        <ele>1415.438</ele>
        <time>2018-12-29T04:55:42Z</time>
      </trkpt>
      <trkpt lat="37.104820" lon="-111.849000">
        <ele>1415.512</ele>
        <time>2018-12-29T04:56:02Z</time>
      </trkpt>
      <trkpt lat="37.104860" lon="-111.848270">
        <ele>1418.011</ele>
        <time>2018-12-29T04:56:22Z</time>
      </trkpt>
      <trkpt lat="37.104900" lon="-111.847620">
        <ele>1420.316</ele>
        <time>2018-12-29T04:56:42Z</time>
      </trkpt>
      <trkpt lat="37.104950" lon="-111.846840">
        <ele>1420.136</ele>
        <time>2018-12-29T04:57:02Z</time>
      </trkpt>
      <trkpt lat="37.104990" lon="-111.846340">
        <ele>1419.917</ele>
        <time>2018-12-29T04:57:22Z</time>
      </trkpt>
      <trkpt lat="37.105030" lon="-111.845740">
        <ele>1420.918</ele>
        <time>2018-12-29T04:57:42Z</time>
      </trkpt>
      <trkpt lat="37.105070" lon="-111.845130">
        <ele>1421.308</ele>
        <time>2018-12-29T04:58:02Z</time>
      </trkpt>
      <trkpt lat="37.105110" lon="-111.844480">
        <ele>1421.386</ele>
        <time>2018-12-29T04:58:22Z</time>
      </trkpt>
      <trkpt lat="37.105180" lon="-111.843020">
        <ele>1419.824</ele>
        <time>2018-12-29T04:58:42Z</time>
      </trkpt>
      <trkpt lat="37.105190" lon="-111.842550">
        <ele>1417.959</ele>
        <time>2018-12-29T04:59:02Z</time>
      </trkpt>
      <trkpt lat="37.105200" lon="-111.842160">
        <ele>1416.040</ele>
        <time>2018-12-29T04:59:22Z</time>
      </trkpt>
      <trkpt lat="37.105210" lon="-111.841150">
        <ele>1415.234</ele>
        <time>2018-12-29T04:59:42Z</time>
      </trkpt>
      <trkpt lat="37.105190" lon="-111.840090">
        <ele>1414.448</ele>
        <time>2018-12-29T05:00:02Z</time>
      </trkpt>
      <trkpt lat="37.105180" lon="-111.839390">
        <ele>1414.217</ele>
        <time>2018-12-29T05:00:22Z</time>
      </trkpt>
      <trkpt lat="37.105150" lon="-111.838580">
        <ele>1413.912</ele>
        <time>2018-12-29T05:00:42Z</time>
      </trkpt>
      <trkpt lat="37.105070" lon="-111.837260">
        <ele>1413.276</ele>
        <time>2018-12-29T05:01:02Z</time>
      </trkpt>
      <trkpt lat="37.104990" lon="-111.836420">
        <ele>1412.890</ele>
        <time>2018-12-29T05:01:22Z</time>
      </trkpt>
      <trkpt lat="37.104860" lon="-111.835390">
        <ele>1411.319</ele>
        <time>2018-12-29T05:01:42Z</time>
      </trkpt>
      <trkpt lat="37.104580" lon="-111.833140">
        <ele>1409.208</ele>
        <time>2018-12-29T05:02:02Z</time>
      </trkpt>
      <trkpt lat="37.104340" lon="-111.831220">
        <ele>1407.910</ele>
        <time>2018-12-29T05:02:22Z</time>
      </trkpt>
      <trkpt lat="37.104210" lon="-111.830080">
        <ele>1407.638</ele>
        <time>2018-12-29T05:02:42Z</time>
      </trkpt>
      <trkpt lat="37.103970" lon="-111.828240">
        <ele>1406.473</ele>
        <time>2018-12-29T05:03:02Z</time>
      </trkpt>
      <trkpt lat="37.103870" lon="-111.827470">
        <ele>1405.084</ele>
        <time>2018-12-29T05:03:22Z</time>
      </trkpt>
      <trkpt lat="37.103520" lon="-111.824740">
        <ele>1402.378</ele>
        <time>2018-12-29T05:03:42Z</time>
      </trkpt>
      <trkpt lat="37.103340" lon="-111.823350">
        <ele>1401.392</ele>
        <time>2018-12-29T05:04:02Z</time>
      </trkpt>
      <trkpt lat="37.103160" lon="-111.821880">
        <ele>1399.981</ele>
        <time>2018-12-29T05:04:22Z</time>
      </trkpt>
      <trkpt lat="37.102970" lon="-111.820450">
        <ele>1397.396</ele>
        <time>2018-12-29T05:04:42Z</time>
      </trkpt>
      <trkpt lat="37.102860" lon="-111.819610">
        <ele>1396.744</ele>
        <time>2018-12-29T05:05:02Z</time>
      </trkpt>
      <trkpt lat="37.102730" lon="-111.818600">
        <ele>1396.605</ele>
        <time>2018-12-29T05:05:22Z</time>
      </trkpt>
      <trkpt lat="37.102580" lon="-111.817470">
        <ele>1396.015</ele>
        <time>2018-12-29T05:05:42Z</time>
      </trkpt>
      <trkpt lat="37.102390" lon="-111.815970">
        <ele>1395.808</ele>
        <time>2018-12-29T05:06:02Z</time>
      </trkpt>
      <trkpt lat="37.102240" lon="-111.814760">
        <ele>1394.947</ele>
        <time>2018-12-29T05:06:22Z</time>
      </trkpt>
      <trkpt lat="37.102010" lon="-111.813030">
        <ele>1391.985</ele>
        <time>2018-12-29T05:06:42Z</time>
      </trkpt>
      <trkpt lat="37.101770" lon="-111.811120">
        <ele>1392.350</ele>
        <time>2018-12-29T05:07:02Z</time>
      </trkpt>
      <trkpt lat="37.101590" lon="-111.809670">
        <ele>1394.921</ele>
        <time>2018-12-29T05:07:22Z</time>
      </trkpt>
      <trkpt lat="37.101340" lon="-111.807670">
        <ele>1394.745</ele>
        <time>2018-12-29T05:07:42Z</time>
      </trkpt>
      <trkpt lat="37.101000" lon="-111.805040">
        <ele>1395.139</ele>
        <time>2018-12-29T05:08:02Z</time>
      </trkpt>
      <trkpt lat="37.100800" lon="-111.803490">
        <ele>1393.078</ele>
        <time>2018-12-29T05:08:22Z</time>
      </trkpt>
      <trkpt lat="37.100620" lon="-111.802020">
        <ele>1392.423</ele>
        <time>2018-12-29T05:08:42Z</time>
      </trkpt>
      <trkpt lat="37.100420" lon="-111.800470">
        <ele>1390.929</ele>
        <time>2018-12-29T05:09:02Z</time>
      </trkpt>
      <trkpt lat="37.100240" lon="-111.799080">
        <ele>1390.900</ele>
        <time>2018-12-29T05:09:22Z</time>
      </trkpt>
      <trkpt lat="37.100080" lon="-111.797820">
        <ele>1389.720</ele>
        <time>2018-12-29T05:09:42Z</time>
      </trkpt>
      <trkpt lat="37.099960" lon="-111.796880">
        <ele>1385.308</ele>
        <time>2018-12-29T05:10:02Z</time>
      </trkpt>
      <trkpt lat="37.099840" lon="-111.796010">
        <ele>1381.115</ele>
        <time>2018-12-29T05:10:22Z</time>
      </trkpt>
      <trkpt lat="37.099730" lon="-111.795120">
        <ele>1378.683</ele>
        <time>2018-12-29T05:10:42Z</time>
      </trkpt>
      <trkpt lat="37.099630" lon="-111.794320">
        <ele>1380.998</ele>
        <time>2018-12-29T05:11:02Z</time>
      </trkpt>
      <trkpt lat="37.099500" lon="-111.793350">
        <ele>1381.289</ele>
        <time>2018-12-29T05:11:22Z</time>
      </trkpt>
      <trkpt lat="37.099350" lon="-111.792120">
        <ele>1384.413</ele>
        <time>2018-12-29T05:11:42Z</time>
      </trkpt>
      <trkpt lat="37.099230" lon="-111.791190">
        <ele>1386.477</ele>
        <time>2018-12-29T05:12:02Z</time>
      </trkpt>
      <trkpt lat="37.099140" lon="-111.790450">
        <ele>1388.286</ele>
        <time>2018-12-29T05:12:22Z</time>
      </trkpt>
      <trkpt lat="37.099010" lon="-111.789490">
        <ele>1388.751</ele>
        <time>2018-12-29T05:12:42Z</time>
      </trkpt>
      <trkpt lat="37.098890" lon="-111.788560">
        <ele>1388.392</ele>
        <time>2018-12-29T05:13:02Z</time>
      </trkpt>
      <trkpt lat="37.098740" lon="-111.787370">
        <ele>1386.773</ele>
        <time>2018-12-29T05:13:22Z</time>
      </trkpt>
      <trkpt lat="37.098620" lon="-111.786440">
        <ele>1385.320</ele>
        <time>2018-12-29T05:13:42Z</time>
      </trkpt>
      <trkpt lat="37.098390" lon="-111.784540">
        <ele>1384.608</ele>
        <time>2018-12-29T05:14:02Z</time>
      </trkpt>
      <trkpt lat="37.098270" lon="-111.783680">
        <ele>1379.752</ele>
        <time>2018-12-29T05:14:22Z</time>
      </trkpt>
      <trkpt lat="37.098170" lon="-111.782890">
        <ele>1380.630</ele>
        <time>2018-12-29T05:14:42Z</time>
      </trkpt>
      <trkpt lat="37.098070" lon="-111.782140">
        <ele>1381.295</ele>
        <time>2018-12-29T05:15:02Z</time>
      </trkpt>
      <trkpt lat="37.097960" lon="-111.781270">
        <ele>1384.426</ele>
        <time>2018-12-29T05:15:22Z</time>
      </trkpt>
      <trkpt lat="37.097840" lon="-111.780330">
        <ele>1384.630</ele>
        <time>2018-12-29T05:15:42Z</time>
      </trkpt>
      <trkpt lat="37.097740" lon="-111.779560">
        <ele>1384.674</ele>
        <time>2018-12-29T05:16:02Z</time>
      </trkpt>
      <trkpt lat="37.097600" lon="-111.778460">
        <ele>1384.553</ele>
        <time>2018-12-29T05:16:22Z</time>
      </trkpt>
      <trkpt lat="37.097470" lon="-111.777500">
        <ele>1384.438</ele>
        <time>2018-12-29T05:16:42Z</time>
      </trkpt>
      <trkpt lat="37.097340" lon="-111.776490">
        <ele>1383.918</ele>
        <time>2018-12-29T05:17:02Z</time>
      </trkpt>
      <trkpt lat="37.097130" lon="-111.774820">
        <ele>1383.598</ele>
        <time>2018-12-29T05:17:22Z</time>
      </trkpt>
      <trkpt lat="37.096990" lon="-111.773770">
        <ele>1383.117</ele>
        <time>2018-12-29T05:17:42Z</time>
      </trkpt>
      <trkpt lat="37.096890" lon="-111.772950">
        <ele>1383.108</ele>
        <time>2018-12-29T05:18:02Z</time>
      </trkpt>
      <trkpt lat="37.096760" lon="-111.771930">
        <ele>1383.164</ele>
        <time>2018-12-29T05:18:22Z</time>
      </trkpt>
      <trkpt lat="37.096630" lon="-111.770950">
        <ele>1383.442</ele>
        <time>2018-12-29T05:18:42Z</time>
      </trkpt>
      <trkpt lat="37.096440" lon="-111.769510">
        <ele>1384.597</ele>
        <time>2018-12-29T05:19:02Z</time>
      </trkpt>
      <trkpt lat="37.096290" lon="-111.768280">
        <ele>1385.068</ele>
        <time>2018-12-29T05:19:22Z</time>
      </trkpt>
      <trkpt lat="37.096140" lon="-111.767140">
        <ele>1385.962</ele>
        <time>2018-12-29T05:19:42Z</time>
      </trkpt>
      <trkpt lat="37.095910" lon="-111.765320">
        <ele>1387.496</ele>
        <time>2018-12-29T05:20:02Z</time>
      </trkpt>
      <trkpt lat="37.095600" lon="-111.762810">
        <ele>1387.535</ele>
        <time>2018-12-29T05:20:22Z</time>
      </trkpt>
      <trkpt lat="37.095440" lon="-111.761650">
        <ele>1384.940</ele>
        <time>2018-12-29T05:20:42Z</time>
      </trkpt>
      <trkpt lat="37.095190" lon="-111.759710">
        <ele>1384.216</ele>
        <time>2018-12-29T05:21:02Z</time>
      </trkpt>
      <trkpt lat="37.095040" lon="-111.758570">
        <ele>1380.876</ele>
        <time>2018-12-29T05:21:22Z</time>
      </trkpt>
      <trkpt lat="37.094960" lon="-111.757940">
        <ele>1378.813</ele>
        <time>2018-12-29T05:21:42Z</time>
      </trkpt>
      <trkpt lat="37.094830" lon="-111.756890">
        <ele>1379.308</ele>
        <time>2018-12-29T05:22:02Z</time>
      </trkpt>
      <trkpt lat="37.094620" lon="-111.755240">
        <ele>1379.214</ele>
        <time>2018-12-29T05:22:22Z</time>
      </trkpt>
      <trkpt lat="37.094290" lon="-111.752670">
        <ele>1377.232</ele>
        <time>2018-12-29T05:22:42Z</time>
      </trkpt>
      <trkpt lat="37.094130" lon="-111.751440">
        <ele>1376.957</ele>
        <time>2018-12-29T05:23:02Z</time>
      </trkpt>
      <trkpt lat="37.094070" lon="-111.750920">
        <ele>1376.688</ele>
        <time>2018-12-29T05:23:22Z</time>
      </trkpt>
      <trkpt lat="37.093860" lon="-111.749200">
        <ele>1377.632</ele>
        <time>2018-12-29T05:23:42Z</time>
      </trkpt>
      <trkpt lat="37.093750" lon="-111.748370">
        <ele>1378.236</ele>
        <time>2018-12-29T05:24:02Z</time>
      </trkpt>
      <trkpt lat="37.093640" lon="-111.747600">
        <ele>1379.145</ele>
        <time>2018-12-29T05:24:22Z</time>
      </trkpt>
      <trkpt lat="37.093410" lon="-111.745880">
        <ele>1379.090</ele>
        <time>2018-12-29T05:24:42Z</time>
      </trkpt>
      <trkpt lat="37.093130" lon="-111.743670">
        <ele>1379.026</ele>
        <time>2018-12-29T05:25:02Z</time>
      </trkpt>
      <trkpt lat="37.092890" lon="-111.741820">
        <ele>1378.147</ele>
        <time>2018-12-29T05:25:22Z</time>
      </trkpt>
      <trkpt lat="37.092600" lon="-111.739520">
        <ele>1376.011</ele>
        <time>2018-12-29T05:25:42Z</time>
      </trkpt>
      <trkpt lat="37.092470" lon="-111.738530">
        <ele>1375.808</ele>
        <time>2018-12-29T05:26:02Z</time>
      </trkpt>
      <trkpt lat="37.092310" lon="-111.737230">
        <ele>1374.965</ele>
        <time>2018-12-29T05:26:22Z</time>
      </trkpt>
      <trkpt lat="37.092160" lon="-111.736110">
        <ele>1373.723</ele>
        <time>2018-12-29T05:26:42Z</time>
      </trkpt>
      <trkpt lat="37.091980" lon="-111.734690">
        <ele>1374.758</ele>
        <time>2018-12-29T05:27:02Z</time>
      </trkpt>
      <trkpt lat="37.091830" lon="-111.733520">
        <ele>1374.499</ele>
        <time>2018-12-29T05:27:22Z</time>
      </trkpt>
      <trkpt lat="37.091650" lon="-111.732120">
        <ele>1371.133</ele>
        <time>2018-12-29T05:27:42Z</time>
      </trkpt>
      <trkpt lat="37.091500" lon="-111.730920">
        <ele>1369.577</ele>
        <time>2018-12-29T05:28:02Z</time>
      </trkpt>
      <trkpt lat="37.091380" lon="-111.730100">
        <ele>1370.126</ele>
        <time>2018-12-29T05:28:22Z</time>
      </trkpt>
      <trkpt lat="37.091220" lon="-111.728850">
        <ele>1370.261</ele>
        <time>2018-12-29T05:28:42Z</time>
      </trkpt>
      <trkpt lat="37.091180" lon="-111.728470">
        <ele>1369.327</ele>
        <time>2018-12-29T05:29:02Z</time>
      </trkpt>
      <trkpt lat="37.091030" lon="-111.727350">
        <ele>1368.568</ele>
        <time>2018-12-29T05:29:22Z</time>
      </trkpt>
      <trkpt lat="37.090840" lon="-111.725930">
        <ele>1368.714</ele>
        <time>2018-12-29T05:29:42Z</time>
      </trkpt>
      <trkpt lat="37.090640" lon="-111.724410">
        <ele>1365.108</ele>
        <time>2018-12-29T05:30:02Z</time>
      </trkpt>
      <trkpt lat="37.090440" lon="-111.722770">
        <ele>1363.315</ele>
        <time>2018-12-29T05:30:22Z</time>
      </trkpt>
      <trkpt lat="37.090280" lon="-111.721540">
        <ele>1361.773</ele>
        <time>2018-12-29T05:30:42Z</time>
      </trkpt>
      <trkpt lat="37.090110" lon="-111.720150">
        <ele>1362.088</ele>
        <time>2018-12-29T05:31:02Z</time>
      </trkpt>
      <trkpt lat="37.089890" lon="-111.718430">
        <ele>1360.629</ele>
        <time>2018-12-29T05:31:22Z</time>
      </trkpt>
      <trkpt lat="37.089670" lon="-111.716730">
        <ele>1358.553</ele>
        <time>2018-12-29T05:31:42Z</time>
      </trkpt>
      <trkpt lat="37.089460" lon="-111.715110">
        <ele>1356.687</ele>
        <time>2018-12-29T05:32:02Z</time>
      </trkpt>
      <trkpt lat="37.089210" lon="-111.713220">
        <ele>1353.486</ele>
        <time>2018-12-29T05:32:22Z</time>
      </trkpt>
      <trkpt lat="37.089080" lon="-111.712220">
        <ele>1351.821</ele>
        <time>2018-12-29T05:32:42Z</time>
      </trkpt>
      <trkpt lat="37.088940" lon="-111.711050">
        <ele>1348.352</ele>
        <time>2018-12-29T05:33:02Z</time>
      </trkpt>
      <trkpt lat="37.088870" lon="-111.710500">
        <ele>1347.853</ele>
        <time>2018-12-29T05:33:22Z</time>
      </trkpt>
      <trkpt lat="37.088790" lon="-111.709890">
        <ele>1345.408</ele>
        <time>2018-12-29T05:33:42Z</time>
      </trkpt>
      <trkpt lat="37.088690" lon="-111.709050">
        <ele>1340.908</ele>
        <time>2018-12-29T05:34:02Z</time>
      </trkpt>
      <trkpt lat="37.088610" lon="-111.708400">
        <ele>1337.668</ele>
        <time>2018-12-29T05:34:22Z</time>
      </trkpt>
      <trkpt lat="37.088510" lon="-111.707710">
        <ele>1336.726</ele>
        <time>2018-12-29T05:34:42Z</time>
      </trkpt>
      <trkpt lat="37.088440" lon="-111.707200">
        <ele>1336.921</ele>
        <time>2018-12-29T05:35:02Z</time>
      </trkpt>
      <trkpt lat="37.088350" lon="-111.706490">
        <ele>1335.442</ele>
        <time>2018-12-29T05:35:22Z</time>
      </trkpt>
      <trkpt lat="37.088220" lon="-111.705470">
        <ele>1332.166</ele>
        <time>2018-12-29T05:35:42Z</time>
      </trkpt>
      <trkpt lat="37.088100" lon="-111.704590">
        <ele>1329.890</ele>
        <time>2018-12-29T05:36:02Z</time>
      </trkpt>
      <trkpt lat="37.087790" lon="-111.702030">
        <ele>1326.789</ele>
        <time>2018-12-29T05:36:22Z</time>
      </trkpt>
      <trkpt lat="37.087720" lon="-111.701540">
        <ele>1327.584</ele>
        <time>2018-12-29T05:36:42Z</time>
      </trkpt>
      <trkpt lat="37.087650" lon="-111.700870">
        <ele>1328.051</ele>
        <time>2018-12-29T05:37:02Z</time>
      </trkpt>
      <trkpt lat="37.087490" lon="-111.699640">
        <ele>1327.101</ele>
        <time>2018-12-29T05:37:22Z</time>
      </trkpt>
      <trkpt lat="37.087390" lon="-111.698790">
        <ele>1326.311</ele>
        <time>2018-12-29T05:37:42Z</time>
      </trkpt>
      <trkpt lat="37.087360" lon="-111.698570">
        <ele>1326.208</ele>
        <time>2018-12-29T05:38:02Z</time>
      </trkpt>
      <trkpt lat="37.087310" lon="-111.698160">
        <ele>1325.978</ele>
        <time>2018-12-29T05:38:22Z</time>
      </trkpt>
      <trkpt lat="37.087200" lon="-111.697380">
        <ele>1326.346</ele>
        <time>2018-12-29T05:38:42Z</time>
      </trkpt>
      <trkpt lat="37.087120" lon="-111.696710">
        <ele>1326.351</ele>
        <time>2018-12-29T05:39:02Z</time>
      </trkpt>
      <trkpt lat="37.087010" lon="-111.695860">
        <ele>1326.052</ele>
        <time>2018-12-29T05:39:22Z</time>
      </trkpt>
      <trkpt lat="37.086800" lon="-111.694210">
        <ele>1324.766</ele>
        <time>2018-12-29T05:39:42Z</time>
      </trkpt>
      <trkpt lat="37.086680" lon="-111.693290">
        <ele>1323.380</ele>
        <time>2018-12-29T05:40:02Z</time>
      </trkpt>
      <trkpt lat="37.086540" lon="-111.692230">
        <ele>1322.159</ele>
        <time>2018-12-29T05:40:22Z</time>
      </trkpt>
      <trkpt lat="37.086380" lon="-111.690980">
        <ele>1319.634</ele>
        <time>2018-12-29T05:40:42Z</time>
      </trkpt>
      <trkpt lat="37.086220" lon="-111.689800">
        <ele>1317.443</ele>
        <time>2018-12-29T05:41:02Z</time>
      </trkpt>
      <trkpt lat="37.086080" lon="-111.688730">
        <ele>1317.064</ele>
        <time>2018-12-29T05:41:22Z</time>
      </trkpt>
      <trkpt lat="37.085920" lon="-111.687390">
        <ele>1315.310</ele>
        <time>2018-12-29T05:41:42Z</time>
      </trkpt>
      <trkpt lat="37.085780" lon="-111.686280">
        <ele>1311.508</ele>
        <time>2018-12-29T05:42:02Z</time>
      </trkpt>
      <trkpt lat="37.085610" lon="-111.685030">
        <ele>1310.697</ele>
        <time>2018-12-29T05:42:22Z</time>
      </trkpt>
      <trkpt lat="37.085490" lon="-111.684080">
        <ele>1308.665</ele>
        <time>2018-12-29T05:42:42Z</time>
      </trkpt>
      <trkpt lat="37.085300" lon="-111.682880">
        <ele>1305.320</ele>
        <time>2018-12-29T05:43:02Z</time>
      </trkpt>
      <trkpt lat="37.085280" lon="-111.682800">
        <ele>1305.121</ele>
        <time>2018-12-29T05:43:22Z</time>
      </trkpt>
      <trkpt lat="37.085180" lon="-111.682320">
        <ele>1304.185</ele>
        <time>2018-12-29T05:43:42Z</time>
      </trkpt>
      <trkpt lat="37.085040" lon="-111.681710">
        <ele>1302.359</ele>
        <time>2018-12-29T05:44:02Z</time>
      </trkpt>
      <trkpt lat="37.084950" lon="-111.681340">
        <ele>1301.328</ele>
        <time>2018-12-29T05:44:22Z</time>
      </trkpt>
      <trkpt lat="37.084810" lon="-111.680820">
        <ele>1299.713</ele>
        <time>2018-12-29T05:44:42Z</time>
      </trkpt>
      <trkpt lat="37.084690" lon="-111.680440">
        <ele>1298.296</ele>
        <time>2018-12-29T05:45:02Z</time>
      </trkpt>
      <trkpt lat="37.084570" lon="-111.680030">
        <ele>1295.831</ele>
        <time>2018-12-29T05:45:22Z</time>
      </trkpt>
      <trkpt lat="37.084420" lon="-111.679620">
        <ele>1294.124</ele>
        <time>2018-12-29T05:45:42Z</time>
      </trkpt>
      <trkpt lat="37.084280" lon="-111.679220">
        <ele>1293.608</ele>
        <time>2018-12-29T05:46:02Z</time>
      </trkpt>
      <trkpt lat="37.084120" lon="-111.678780">
        <ele>1292.732</ele>
        <time>2018-12-29T05:46:22Z</time>
      </trkpt>
      <trkpt lat="37.083900" lon="-111.678200">
        <ele>1291.790</ele>
        <time>2018-12-29T05:46:42Z</time>
      </trkpt>
      <trkpt lat="37.083640" lon="-111.677550">
        <ele>1290.185</ele>
        <time>2018-12-29T05:47:02Z</time>
      </trkpt>
      <trkpt lat="37.083360" lon="-111.676870">
        <ele>1287.366</ele>
        <time>2018-12-29T05:47:22Z</time>
      </trkpt>
      <trkpt lat="37.083080" lon="-111.676170">
        <ele>1285.650</ele>
        <time>2018-12-29T05:47:42Z</time>
      </trkpt>
      <trkpt lat="37.082780" lon="-111.675430">
        <ele>1283.344</ele>
        <time>2018-12-29T05:48:02Z</time>
      </trkpt>
      <trkpt lat="37.082550" lon="-111.674860">
        <ele>1281.823</ele>
        <time>2018-12-29T05:48:22Z</time>
      </trkpt>
      <trkpt lat="37.082320" lon="-111.674280">
        <ele>1281.428</ele>
        <time>2018-12-29T05:48:42Z</time>
      </trkpt>
      <trkpt lat="37.082050" lon="-111.673610">
        <ele>1280.555</ele>
        <time>2018-12-29T05:49:02Z</time>
      </trkpt>
      <trkpt lat="37.081730" lon="-111.672820">
        <ele>1278.207</ele>
        <time>2018-12-29T05:49:22Z</time>
      </trkpt>
      <trkpt lat="37.081420" lon="-111.672050">
        <ele>1276.017</ele>
        <time>2018-12-29T05:49:42Z</time>
      </trkpt>
      <trkpt lat="37.081070" lon="-111.671160">
        <ele>1273.608</ele>
        <time>2018-12-29T05:50:02Z</time>
      </trkpt>
      <trkpt lat="37.080820" lon="-111.670570">
        <ele>1270.818</ele>
        <time>2018-12-29T05:50:22Z</time>
      </trkpt>
      <trkpt lat="37.080540" lon="-111.669880">
        <ele>1268.746</ele>
        <time>2018-12-29T05:50:42Z</time>
      </trkpt>
      <trkpt lat="37.080010" lon="-111.668520">
        <ele>1263.341</ele>
        <time>2018-12-29T05:51:02Z</time>
      </trkpt>
      <trkpt lat="37.079730" lon="-111.667860">
        <ele>1263.232</ele>
        <time>2018-12-29T05:51:22Z</time>
      </trkpt>
      <trkpt lat="37.079420" lon="-111.667070">
        <ele>1262.066</ele>
        <time>2018-12-29T05:51:42Z</time>
      </trkpt>
      <trkpt lat="37.079010" lon="-111.666070">
        <ele>1260.760</ele>
        <time>2018-12-29T05:52:02Z</time>
      </trkpt>
      <trkpt lat="37.078660" lon="-111.665230">
        <ele>1258.779</ele>
        <time>2018-12-29T05:52:22Z</time>
      </trkpt>
      <trkpt lat="37.078500" lon="-111.664840">
        <ele>1257.714</ele>
        <time>2018-12-29T05:52:42Z</time>
      </trkpt>
      <trkpt lat="37.078230" lon="-111.664190">
        <ele>1256.767</ele>
        <time>2018-12-29T05:53:02Z</time>
      </trkpt>
      <trkpt lat="37.077900" lon="-111.663370">
        <ele>1255.381</ele>
        <time>2018-12-29T05:53:22Z</time>
      </trkpt>
      <trkpt lat="37.077900" lon="-111.663350">
        <ele>1255.319</ele>
        <time>2018-12-29T05:53:42Z</time>
      </trkpt>
      <trkpt lat="37.077540" lon="-111.662440">
        <ele>1253.208</ele>
        <time>2018-12-29T05:54:02Z</time>
      </trkpt>
      <trkpt lat="37.077160" lon="-111.661500">
        <ele>1250.349</ele>
        <time>2018-12-29T05:54:22Z</time>
      </trkpt>
      <trkpt lat="37.077020" lon="-111.661150">
        <ele>1249.747</ele>
        <time>2018-12-29T05:54:42Z</time>
      </trkpt>
      <trkpt lat="37.076800" lon="-111.660620">
        <ele>1247.122</ele>
        <time>2018-12-29T05:55:02Z</time>
      </trkpt>
      <trkpt lat="37.076740" lon="-111.660480">
        <ele>1245.763</ele>
        <time>2018-12-29T05:55:22Z</time>
      </trkpt>
      <trkpt lat="37.076430" lon="-111.659710">
        <ele>1241.467</ele>
        <time>2018-12-29T05:55:42Z</time>
      </trkpt>
      <trkpt lat="37.076140" lon="-111.658990">
        <ele>1238.571</ele>
        <time>2018-12-29T05:56:02Z</time>
      </trkpt>
      <trkpt lat="37.076000" lon="-111.658650">
        <ele>1238.610</ele>
        <time>2018-12-29T05:56:22Z</time>
      </trkpt>
      <trkpt lat="37.075690" lon="-111.657880">
        <ele>1241.025</ele>
        <time>2018-12-29T05:56:42Z</time>
      </trkpt>
      <trkpt lat="37.075550" lon="-111.657540">
        <ele>1241.731</ele>
        <time>2018-12-29T05:57:02Z</time>
      </trkpt>
      <trkpt lat="37.075300" lon="-111.656940">
        <ele>1241.061</ele>
        <time>2018-12-29T05:57:22Z</time>
      </trkpt>
      <trkpt lat="37.075080" lon="-111.656450">
        <ele>1240.407</ele>
        <time>2018-12-29T05:57:42Z</time>
      </trkpt>
      <trkpt lat="37.074890" lon="-111.656070">
        <ele>1240.608</ele>
        <time>2018-12-29T05:58:02Z</time>
      </trkpt>
      <trkpt lat="37.074650" lon="-111.655590">
        <ele>1242.466</ele>
        <time>2018-12-29T05:58:22Z</time>
      </trkpt>
      <trkpt lat="37.074480" lon="-111.655260">
        <ele>1243.614</ele>
        <time>2018-12-29T05:58:42Z</time>
      </trkpt>
      <trkpt lat="37.074170" lon="-111.654700">
        <ele>1243.289</ele>
        <time>2018-12-29T05:59:02Z</time>
      </trkpt>
      <trkpt lat="37.073970" lon="-111.654360">
        <ele>1242.740</ele>
        <time>2018-12-29T05:59:22Z</time>
      </trkpt>
      <trkpt lat="37.073580" lon="-111.653740">
        <ele>1241.614</ele>
        <time>2018-12-29T05:59:42Z</time>
      </trkpt>
      <trkpt lat="37.073220" lon="-111.653230">
        <ele>1239.848</ele>
        <time>2018-12-29T06:00:02Z</time>
      </trkpt>
      <trkpt lat="37.072680" lon="-111.652510">
        <ele>1238.717</ele>
        <time>2018-12-29T06:00:22Z</time>
      </trkpt>
      <trkpt lat="37.072380" lon="-111.652140">
        <ele>1237.952</ele>
        <time>2018-12-29T06:00:42Z</time>
      </trkpt>
      <trkpt lat="37.071830" lon="-111.651520">
        <ele>1236.113</ele>
        <time>2018-12-29T06:01:02Z</time>
      </trkpt>
      <trkpt lat="37.071630" lon="-111.651300">
        <ele>1235.543</ele>
        <time>2018-12-29T06:01:22Z</time>
      </trkpt>
      <trkpt lat="37.071300" lon="-111.650960">
        <ele>1234.807</ele>
        <time>2018-12-29T06:01:42Z</time>
      </trkpt>
      <trkpt lat="37.070840" lon="-111.650520">
        <ele>1234.408</ele>
        <time>2018-12-29T06:02:02Z</time>
      </trkpt>
      <trkpt lat="37.070410" lon="-111.650130">
        <ele>1233.784</ele>
        <time>2018-12-29T06:02:22Z</time>
      </trkpt>
      <trkpt lat="37.070190" lon="-111.649940">
        <ele>1233.072</ele>
        <time>2018-12-29T06:02:42Z</time>
      </trkpt>
      <trkpt lat="37.069860" lon="-111.649680">
        <ele>1232.687</ele>
        <time>2018-12-29T06:03:02Z</time>
      </trkpt>
      <trkpt lat="37.069500" lon="-111.649370">
        <ele>1232.518</ele>
        <time>2018-12-29T06:03:22Z</time>
      </trkpt>
      <trkpt lat="37.069350" lon="-111.649260">
        <ele>1232.562</ele>
        <time>2018-12-29T06:03:42Z</time>
      </trkpt>
      <trkpt lat="37.068930" lon="-111.648920">
        <ele>1230.066</ele>
        <time>2018-12-29T06:04:02Z</time>
      </trkpt>
      <trkpt lat="37.068420" lon="-111.648510">
        <ele>1229.865</ele>
        <time>2018-12-29T06:04:22Z</time>
      </trkpt>
      <trkpt lat="37.067640" lon="-111.647880">
        <ele>1231.240</ele>
        <time>2018-12-29T06:04:42Z</time>
      </trkpt>
      <trkpt lat="37.067080" lon="-111.647440">
        <ele>1230.836</ele>
        <time>2018-12-29T06:05:02Z</time>
      </trkpt>
      <trkpt lat="37.066810" lon="-111.647210">
        <ele>1230.617</ele>
        <time>2018-12-29T06:05:22Z</time>
      </trkpt>
      <trkpt lat="37.066660" lon="-111.647090">
        <ele>1230.518</ele>
        <time>2018-12-29T06:05:42Z</time>
      </trkpt>
      <trkpt lat="37.065860" lon="-111.646430">
        <ele>1230.408</ele>
        <time>2018-12-29T06:06:02Z</time>
      </trkpt>
      <trkpt lat="37.065860" lon="-111.646420">
        <ele>1230.426</ele>
        <time>2018-12-29T06:06:22Z</time>
      </trkpt>
      <trkpt lat="37.065490" lon="-111.646120">
        <ele>1230.594</ele>
        <time>2018-12-29T06:06:42Z</time>
      </trkpt>
      <trkpt lat="37.065030" lon="-111.645730">
        <ele>1230.719</ele>
        <time>2018-12-29T06:07:02Z</time>
      </trkpt>
      <trkpt lat="37.064580" lon="-111.645380">
        <ele>1230.990</ele>
        <time>2018-12-29T06:07:22Z</time>
      </trkpt>
      <trkpt lat="37.064520" lon="-111.645330">
        <ele>1230.974</ele>
        <time>2018-12-29T06:07:42Z</time>
      </trkpt>
      <trkpt lat="37.063650" lon="-111.644600">
        <ele>1230.318</ele>
        <time>2018-12-29T06:08:02Z</time>
      </trkpt>
      <trkpt lat="37.063210" lon="-111.644250">
        <ele>1229.517</ele>
        <time>2018-12-29T06:08:22Z</time>
      </trkpt>
      <trkpt lat="37.062650" lon="-111.643800">
        <ele>1228.352</ele>
        <time>2018-12-29T06:08:42Z</time>
      </trkpt>
      <trkpt lat="37.062100" lon="-111.643370">
        <ele>1227.434</ele>
        <time>2018-12-29T06:09:02Z</time>
      </trkpt>
      <trkpt lat="37.061050" lon="-111.642540">
        <ele>1225.555</ele>
        <time>2018-12-29T06:09:22Z</time>
      </trkpt>
      <trkpt lat="37.060510" lon="-111.642120">
        <ele>1225.010</ele>
        <time>2018-12-29T06:09:42Z</time>
      </trkpt>
      <trkpt lat="37.059130" lon="-111.640970">
        <ele>1225.308</ele>
        <time>2018-12-29T06:10:02Z</time>
      </trkpt>
      <trkpt lat="37.058620" lon="-111.640490">
        <ele>1224.326</ele>
        <time>2018-12-29T06:10:22Z</time>
      </trkpt>
      <trkpt lat="37.058140" lon="-111.640020">
        <ele>1222.714</ele>
        <time>2018-12-29T06:10:42Z</time>
      </trkpt>
      <trkpt lat="37.057580" lon="-111.639400">
        <ele>1220.229</ele>
        <time>2018-12-29T06:11:02Z</time>
      </trkpt>
      <trkpt lat="37.057120" lon="-111.638840">
        <ele>1219.820</ele>
        <time>2018-12-29T06:11:22Z</time>
      </trkpt>
      <trkpt lat="37.056700" lon="-111.638280">
        <ele>1216.724</ele>
        <time>2018-12-29T06:11:42Z</time>
      </trkpt>
      <trkpt lat="37.056300" lon="-111.637740">
        <ele>1214.088</ele>
        <time>2018-12-29T06:12:02Z</time>
      </trkpt>
      <trkpt lat="37.055880" lon="-111.637080">
        <ele>1209.297</ele>
        <time>2018-12-29T06:12:22Z</time>
      </trkpt>
      <trkpt lat="37.055650" lon="-111.636700">
        <ele>1209.172</ele>
        <time>2018-12-29T06:12:42Z</time>
      </trkpt>
      <trkpt lat="37.055610" lon="-111.636630">
        <ele>1209.781</ele>
        <time>2018-12-29T06:13:02Z</time>
      </trkpt>
      <trkpt lat="37.055440" lon="-111.636350">
        <ele>1211.161</ele>
        <time>2018-12-29T06:13:22Z</time>
      </trkpt>
      <trkpt lat="37.055130" lon="-111.635770">
        <ele>1213.917</ele>
        <time>2018-12-29T06:13:42Z</time>
      </trkpt>
      <trkpt lat="37.054780" lon="-111.635110">
        <ele>1214.008</ele>
        <time>2018-12-29T06:14:02Z</time>
      </trkpt>
      <trkpt lat="37.054270" lon="-111.634130">
        <ele>1211.961</ele>
        <time>2018-12-29T06:14:22Z</time>
      </trkpt>
      <trkpt lat="37.053940" lon="-111.633500">
        <ele>1208.249</ele>
        <time>2018-12-29T06:14:42Z</time>
      </trkpt>
      <trkpt lat="37.053500" lon="-111.632670">
        <ele>1207.214</ele>
        <time>2018-12-29T06:15:02Z</time>
      </trkpt>
      <trkpt lat="37.052820" lon="-111.631340">
        <ele>1206.795</ele>
        <time>2018-12-29T06:15:22Z</time>
      </trkpt>
      <trkpt lat="37.052450" lon="-111.630650">
        <ele>1201.499</ele>
        <time>2018-12-29T06:15:42Z</time>
      </trkpt>
      <trkpt lat="37.051850" lon="-111.629480">
        <ele>1203.443</ele>
        <time>2018-12-29T06:16:02Z</time>
      </trkpt>
      <trkpt lat="37.051350" lon="-111.628550">
        <ele>1202.542</ele>
        <time>2018-12-29T06:16:22Z</time>
      </trkpt>
      <trkpt lat="37.051110" lon="-111.628150">
        <ele>1205.167</ele>
        <time>2018-12-29T06:16:42Z</time>
      </trkpt>
      <trkpt lat="37.050910" lon="-111.627820">
        <ele>1206.742</ele>
        <time>2018-12-29T06:17:02Z</time>
      </trkpt>
      <trkpt lat="37.050720" lon="-111.627540">
        <ele>1207.522</ele>
        <time>2018-12-29T06:17:22Z</time>
      </trkpt>
      <trkpt lat="37.050370" lon="-111.627010">
        <ele>1206.914</ele>
        <time>2018-12-29T06:17:42Z</time>
      </trkpt>
      <trkpt lat="37.050150" lon="-111.626690">
        <ele>1206.708</ele>
        <time>2018-12-29T06:18:02Z</time>
      </trkpt>
      <trkpt lat="37.049870" lon="-111.626330">
        <ele>1206.937</ele>
        <time>2018-12-29T06:18:22Z</time>
      </trkpt>
      <trkpt lat="37.049350" lon="-111.625670">
        <ele>1206.835</ele>
        <time>2018-12-29T06:18:42Z</time>
      </trkpt>
      <trkpt lat="37.048830" lon="-111.625080">
        <ele>1206.240</ele>
        <time>2018-12-29T06:19:02Z</time>
      </trkpt>
      <trkpt lat="37.048320" lon="-111.624550">
        <ele>1205.721</ele>
        <time>2018-12-29T06:19:22Z</time>
      </trkpt>
      <trkpt lat="37.047810" lon="-111.624070">
        <ele>1204.835</ele>
        <time>2018-12-29T06:19:42Z</time>
      </trkpt>
      <trkpt lat="37.047520" lon="-111.623810">
        <ele>1203.089</ele>
        <time>2018-12-29T06:20:02Z</time>
      </trkpt>
      <trkpt lat="37.047160" lon="-111.623500">
        <ele>1201.078</ele>
        <time>2018-12-29T06:20:22Z</time>
      </trkpt>
      <trkpt lat="37.046920" lon="-111.623320">
        <ele>1202.193</ele>
        <time>2018-12-29T06:20:42Z</time>
      </trkpt>
      <trkpt lat="37.046640" lon="-111.623100">
        <ele>1202.353</ele>
        <time>2018-12-29T06:21:02Z</time>
      </trkpt>
      <trkpt lat="37.046370" lon="-111.622900">
        <ele>1199.504</ele>
        <time>2018-12-29T06:21:22Z</time>
      </trkpt>
      <trkpt lat="37.045840" lon="-111.622520">
        <ele>1195.714</ele>
        <time>2018-12-29T06:21:42Z</time>
      </trkpt>
      <trkpt lat="37.045300" lon="-111.622130">
        <ele>1198.408</ele>
        <time>2018-12-29T06:22:02Z</time>
      </trkpt>
      <trkpt lat="37.044690" lon="-111.621710">
        <ele>1207.378</ele>
        <time>2018-12-29T06:22:22Z</time>
      </trkpt>
      <trkpt lat="37.044220" lon="-111.621370">
        <ele>1209.036</ele>
        <time>2018-12-29T06:22:42Z</time>
      </trkpt>
      <trkpt lat="37.043480" lon="-111.620850">
        <ele>1208.061</ele>
        <time>2018-12-29T06:23:02Z</time>
      </trkpt>
      <trkpt lat="37.042670" lon="-111.620250">
        <ele>1206.182</ele>
        <time>2018-12-29T06:23:22Z</time>
      </trkpt>
      <trkpt lat="37.042110" lon="-111.619850">
        <ele>1197.076</ele>
        <time>2018-12-29T06:23:42Z</time>
      </trkpt>
      <trkpt lat="37.041710" lon="-111.619570">
        <ele>1201.070</ele>
        <time>2018-12-29T06:24:02Z</time>
      </trkpt>
      <trkpt lat="37.040930" lon="-111.619010">
        <ele>1204.769</ele>
        <time>2018-12-29T06:24:22Z</time>
      </trkpt>
      <trkpt lat="37.040560" lon="-111.618760">
        <ele>1204.734</ele>
        <time>2018-12-29T06:24:42Z</time>
      </trkpt>
      <trkpt lat="37.040350" lon="-111.618600">
        <ele>1203.713</ele>
        <time>2018-12-29T06:25:02Z</time>
      </trkpt>
      <trkpt lat="37.040030" lon="-111.618360">
        <ele>1198.943</ele>
        <time>2018-12-29T06:25:22Z</time>
      </trkpt>
      <trkpt lat="37.039730" lon="-111.618150">
        <ele>1195.807</ele>
        <time>2018-12-29T06:25:42Z</time>
      </trkpt>
      <trkpt lat="37.039220" lon="-111.617780">
        <ele>1194.608</ele>
        <time>2018-12-29T06:26:02Z</time>
      </trkpt>
      <trkpt lat="37.038820" lon="-111.617500">
        <ele>1184.484</ele>
        <time>2018-12-29T06:26:22Z</time>
      </trkpt>
      <trkpt lat="37.038710" lon="-111.617400">
        <ele>1185.862</ele>
        <time>2018-12-29T06:26:42Z</time>
      </trkpt>
      <trkpt lat="37.038550" lon="-111.617300">
        <ele>1192.697</ele>
        <time>2018-12-29T06:27:02Z</time>
      </trkpt>
      <trkpt lat="37.038160" lon="-111.617020">
        <ele>1195.848</ele>
        <time>2018-12-29T06:27:22Z</time>
      </trkpt>
      <trkpt lat="37.037840" lon="-111.616780">
        <ele>1196.852</ele>
        <time>2018-12-29T06:27:42Z</time>
      </trkpt>
      <trkpt lat="37.037450" lon="-111.616470">
        <ele>1199.486</ele>
        <time>2018-12-29T06:28:02Z</time>
      </trkpt>
      <trkpt lat="37.037440" lon="-111.616470">
        <ele>1199.465</ele>
        <time>2018-12-29T06:28:22Z</time>
      </trkpt>
      <trkpt lat="37.037160" lon="-111.616230">
        <ele>1201.610</ele>
        <time>2018-12-29T06:28:42Z</time>
      </trkpt>
      <trkpt lat="37.036910" lon="-111.615990">
        <ele>1203.411</ele>
        <time>2018-12-29T06:29:02Z</time>
      </trkpt>
      <trkpt lat="37.036670" lon="-111.615760">
        <ele>1204.821</ele>
        <time>2018-12-29T06:29:22Z</time>
      </trkpt>
      <trkpt lat="37.036500" lon="-111.615580">
        <ele>1205.603</ele>
        <time>2018-12-29T06:29:42Z</time>
      </trkpt>
      <trkpt lat="37.036330" lon="-111.615390">
        <ele>1206.308</ele>
        <time>2018-12-29T06:30:02Z</time>
      </trkpt>
      <trkpt lat="37.036220" lon="-111.615250">
        <ele>1206.784</ele>
        <time>2018-12-29T06:30:22Z</time>
      </trkpt>
      <trkpt lat="37.036090" lon="-111.615100">
        <ele>1207.332</ele>
        <time>2018-12-29T06:30:42Z</time>
      </trkpt>
      <trkpt lat="37.035990" lon="-111.614960">
        <ele>1207.747</ele>
        <time>2018-12-29T06:31:02Z</time>
      </trkpt>
      <trkpt lat="37.035880" lon="-111.614810">
        <ele>1208.048</ele>
        <time>2018-12-29T06:31:22Z</time>
      </trkpt>
      <trkpt lat="37.035730" lon="-111.614600">
        <ele>1207.922</ele>
        <time>2018-12-29T06:31:42Z</time>
      </trkpt>
      <trkpt lat="37.035570" lon="-111.614340">
        <ele>1208.016</ele>
        <time>2018-12-29T06:32:02Z</time>
      </trkpt>
      <trkpt lat="37.035290" lon="-111.613900">
        <ele>1209.515</ele>
        <time>2018-12-29T06:32:22Z</time>
      </trkpt>
      <trkpt lat="37.035280" lon="-111.613880">
        <ele>1209.660</ele>
        <time>2018-12-29T06:32:42Z</time>
      </trkpt>
      <trkpt lat="37.034900" lon="-111.613180">
        <ele>1211.645</ele>
        <time>2018-12-29T06:33:02Z</time>
      </trkpt>
      <trkpt lat="37.034860" lon="-111.613090">
        <ele>1211.747</ele>
        <time>2018-12-29T06:33:22Z</time>
      </trkpt>
      <trkpt lat="37.034580" lon="-111.612510">
        <ele>1212.611</ele>
        <time>2018-12-29T06:33:42Z</time>
      </trkpt>
      <trkpt lat="37.034410" lon="-111.612130">
        <ele>1213.308</ele>
        <time>2018-12-29T06:34:02Z</time>
      </trkpt>
      <trkpt lat="37.034330" lon="-111.611980">
        <ele>1213.767</ele>
        <time>2018-12-29T06:34:22Z</time>
      </trkpt>
      <trkpt lat="37.034000" lon="-111.611270">
        <ele>1215.495</ele>
        <time>2018-12-29T06:34:42Z</time>
      </trkpt>
      <trkpt lat="37.033860" lon="-111.611010">
        <ele>1216.270</ele>
        <time>2018-12-29T06:35:02Z</time>
      </trkpt>
      <trkpt lat="37.033690" lon="-111.610650">
        <ele>1217.171</ele>
        <time>2018-12-29T06:35:22Z</time>
      </trkpt>
      <trkpt lat="37.033550" lon="-111.610350">
        <ele>1217.755</ele>
        <time>2018-12-29T06:35:42Z</time>
      </trkpt>
      <trkpt lat="37.033490" lon="-111.610220">
        <ele>1217.849</ele>
        <time>2018-12-29T06:36:02Z</time>
      </trkpt>
      <trkpt lat="37.033330" lon="-111.609890">
        <ele>1218.178</ele>
        <time>2018-12-29T06:36:22Z</time>
      </trkpt>
      <trkpt lat="37.033240" lon="-111.609710">
        <ele>1218.283</ele>
        <time>2018-12-29T06:36:42Z</time>
      </trkpt>
      <trkpt lat="37.032680" lon="-111.608650">
        <ele>1217.759</ele>
        <time>2018-12-29T06:37:02Z</time>
      </trkpt>
      <trkpt lat="37.032480" lon="-111.608270">
        <ele>1217.003</ele>
        <time>2018-12-29T06:37:22Z</time>
      </trkpt>
      <trkpt lat="37.032370" lon="-111.608080">
        <ele>1216.823</ele>
        <time>2018-12-29T06:37:42Z</time>
      </trkpt>
      <trkpt lat="37.032020" lon="-111.607430">
        <ele>1216.708</ele>
        <time>2018-12-29T06:38:02Z</time>
      </trkpt>
      <trkpt lat="37.031940" lon="-111.607300">
        <ele>1216.738</ele>
        <time>2018-12-29T06:38:22Z</time>
      </trkpt>
      <trkpt lat="37.031680" lon="-111.606870">
        <ele>1215.486</ele>
        <time>2018-12-29T06:38:42Z</time>
      </trkpt>
      <trkpt lat="37.031270" lon="-111.606190">
        <ele>1208.421</ele>
        <time>2018-12-29T06:39:02Z</time>
      </trkpt>
      <trkpt lat="37.030930" lon="-111.605680">
        <ele>1207.772</ele>
        <time>2018-12-29T06:39:22Z</time>
      </trkpt>
      <trkpt lat="37.030570" lon="-111.605160">
        <ele>1204.016</ele>
        <time>2018-12-29T06:39:42Z</time>
      </trkpt>
      <trkpt lat="37.030190" lon="-111.604610">
        <ele>1198.690</ele>
        <time>2018-12-29T06:40:02Z</time>
      </trkpt>
      <trkpt lat="37.029890" lon="-111.604190">
        <ele>1195.839</ele>
        <time>2018-12-29T06:40:22Z</time>
      </trkpt>
      <trkpt lat="37.029820" lon="-111.604100">
        <ele>1195.764</ele>
        <time>2018-12-29T06:40:42Z</time>
      </trkpt>
      <trkpt lat="37.029580" lon="-111.603770">
        <ele>1195.791</ele>
        <time>2018-12-29T06:41:02Z</time>
      </trkpt>
      <trkpt lat="37.029380" lon="-111.603520">
        <ele>1195.781</ele>
        <time>2018-12-29T06:41:22Z</time>
      </trkpt>
      <trkpt lat="37.029210" lon="-111.603300">
        <ele>1195.719</ele>
        <time>2018-12-29T06:41:42Z</time>
      </trkpt>
      <trkpt lat="37.028960" lon="-111.603010">
        <ele>1195.608</ele>
        <time>2018-12-29T06:42:02Z</time>
      </trkpt>
      <trkpt lat="37.028610" lon="-111.602590">
        <ele>1194.732</ele>
        <time>2018-12-29T06:42:22Z</time>
      </trkpt>
      <trkpt lat="37.028410" lon="-111.602340">
        <ele>1194.480</ele>
        <time>2018-12-29T06:42:42Z</time>
      </trkpt>
      <trkpt lat="37.028060" lon="-111.601930">
        <ele>1194.275</ele>
        <time>2018-12-29T06:43:02Z</time>
      </trkpt>
      <trkpt lat="37.027660" lon="-111.601460">
        <ele>1194.176</ele>
        <time>2018-12-29T06:43:22Z</time>
      </trkpt>
      <trkpt lat="37.027300" lon="-111.601050">
        <ele>1193.240</ele>
        <time>2018-12-29T06:43:42Z</time>
      </trkpt>
      <trkpt lat="37.026940" lon="-111.600670">
        <ele>1192.224</ele>
        <time>2018-12-29T06:44:02Z</time>
      </trkpt>
      <trkpt lat="37.026600" lon="-111.600270">
        <ele>1191.483</ele>
        <time>2018-12-29T06:44:22Z</time>
      </trkpt>
      <trkpt lat="37.026360" lon="-111.600020">
        <ele>1191.058</ele>
        <time>2018-12-29T06:44:42Z</time>
      </trkpt>
      <trkpt lat="37.026200" lon="-111.599830">
        <ele>1190.867</ele>
        <time>2018-12-29T06:45:02Z</time>
      </trkpt>
      <trkpt lat="37.026010" lon="-111.599610">
        <ele>1190.881</ele>
        <time>2018-12-29T06:45:22Z</time>
      </trkpt>
      <trkpt lat="37.025780" lon="-111.599370">
        <ele>1190.819</ele>
        <time>2018-12-29T06:45:42Z</time>
      </trkpt>
      <trkpt lat="37.025470" lon="-111.599030">
        <ele>1190.808</ele>
        <time>2018-12-29T06:46:02Z</time>
      </trkpt>
      <trkpt lat="37.025120" lon="-111.598650">
        <ele>1191.049</ele>
        <time>2018-12-29T06:46:22Z</time>
      </trkpt>
      <trkpt lat="37.024670" lon="-111.598160">
        <ele>1191.077</ele>
        <time>2018-12-29T06:46:42Z</time>
      </trkpt>
      <trkpt lat="37.024150" lon="-111.597600">
        <ele>1190.612</ele>
        <time>2018-12-29T06:47:02Z</time>
      </trkpt>
      <trkpt lat="37.023730" lon="-111.597120">
        <ele>1189.893</ele>
        <time>2018-12-29T06:47:22Z</time>
      </trkpt>
      <trkpt lat="37.023330" lon="-111.596690">
        <ele>1188.747</ele>
        <time>2018-12-29T06:47:42Z</time>
      </trkpt>
      <trkpt lat="37.022580" lon="-111.595860">
        <ele>1186.531</ele>
        <time>2018-12-29T06:48:02Z</time>
      </trkpt>
      <trkpt lat="37.021950" lon="-111.595160">
        <ele>1187.940</ele>
        <time>2018-12-29T06:48:22Z</time>
      </trkpt>
      <trkpt lat="37.021210" lon="-111.594360">
        <ele>1187.915</ele>
        <time>2018-12-29T06:48:42Z</time>
      </trkpt>
      <trkpt lat="37.020340" lon="-111.593400">
        <ele>1189.156</ele>
        <time>2018-12-29T06:49:02Z</time>
      </trkpt>
      <trkpt lat="37.019670" lon="-111.592640">
        <ele>1187.059</ele>
        <time>2018-12-29T06:49:22Z</time>
      </trkpt>
      <trkpt lat="37.019140" lon="-111.592070">
        <ele>1187.414</ele>
        <time>2018-12-29T06:49:42Z</time>
      </trkpt>
      <trkpt lat="37.018690" lon="-111.591580">
        <ele>1188.608</ele>
        <time>2018-12-29T06:50:02Z</time>
      </trkpt>
      <trkpt lat="37.018400" lon="-111.591270">
        <ele>1189.288</ele>
        <time>2018-12-29T06:50:22Z</time>
      </trkpt>
      <trkpt lat="37.018190" lon="-111.591050">
        <ele>1189.946</ele>
        <time>2018-12-29T06:50:42Z</time>
      </trkpt>
      <trkpt lat="37.017730" lon="-111.590580">
        <ele>1191.961</ele>
        <time>2018-12-29T06:51:02Z</time>
      </trkpt>
      <trkpt lat="37.017150" lon="-111.589960">
        <ele>1194.742</ele>
        <time>2018-12-29T06:51:22Z</time>
      </trkpt>
      <trkpt lat="37.016750" lon="-111.589520">
        <ele>1195.346</ele>
        <time>2018-12-29T06:51:42Z</time>
      </trkpt>
      <trkpt lat="37.016460" lon="-111.589200">
        <ele>1195.330</ele>
        <time>2018-12-29T06:52:02Z</time>
      </trkpt>
      <trkpt lat="37.016150" lon="-111.588860">
        <ele>1195.099</ele>
        <time>2018-12-29T06:52:22Z</time>
      </trkpt>
      <trkpt lat="37.015850" lon="-111.588520">
        <ele>1193.564</ele>
        <time>2018-12-29T06:52:42Z</time>
      </trkpt>
      <trkpt lat="37.015660" lon="-111.588310">
        <ele>1192.981</ele>
        <time>2018-12-29T06:53:02Z</time>
      </trkpt>
      <trkpt lat="37.015320" lon="-111.587930">
        <ele>1191.361</ele>
        <time>2018-12-29T06:53:22Z</time>
      </trkpt>
      <trkpt lat="37.014990" lon="-111.587560">
        <ele>1189.017</ele>
        <time>2018-12-29T06:53:42Z</time>
      </trkpt>
      <trkpt lat="37.014640" lon="-111.587170">
        <ele>1186.408</ele>
        <time>2018-12-29T06:54:02Z</time>
      </trkpt>
      <trkpt lat="37.014000" lon="-111.586460">
        <ele>1185.611</ele>
        <time>2018-12-29T06:54:22Z</time>
      </trkpt>
      <trkpt lat="37.013580" lon="-111.586010">
        <ele>1184.189</ele>
        <time>2018-12-29T06:54:42Z</time>
      </trkpt>
      <trkpt lat="37.013180" lon="-111.585560">
        <ele>1183.524</ele>
        <time>2018-12-29T06:55:02Z</time>
      </trkpt>
      <trkpt lat="37.013100" lon="-111.585470">
        <ele>1184.195</ele>
        <time>2018-12-29T06:55:22Z</time>
      </trkpt>
      <trkpt lat="37.012840" lon="-111.585200">
        <ele>1187.639</ele>
        <time>2018-12-29T06:55:42Z</time>
      </trkpt>
      <trkpt lat="37.012520" lon="-111.584850">
        <ele>1190.713</ele>
        <time>2018-12-29T06:56:02Z</time>
      </trkpt>
      <trkpt lat="37.011630" lon="-111.583880">
        <ele>1196.712</ele>
        <time>2018-12-29T06:56:22Z</time>
      </trkpt>
      <trkpt lat="37.011330" lon="-111.583550">
        <ele>1197.457</ele>
        <time>2018-12-29T06:56:42Z</time>
      </trkpt>
      <trkpt lat="37.010940" lon="-111.583110">
        <ele>1199.744</ele>
        <time>2018-12-29T06:57:02Z</time>
      </trkpt>
      <trkpt lat="37.010770" lon="-111.582940">
        <ele>1202.205</ele>
        <time>2018-12-29T06:57:22Z</time>
      </trkpt>
      <trkpt lat="37.010490" lon="-111.582660">
        <ele>1206.215</ele>
        <time>2018-12-29T06:57:42Z</time>
      </trkpt>
      <trkpt lat="37.010100" lon="-111.582230">
        <ele>1207.908</ele>
        <time>2018-12-29T06:58:02Z</time>
      </trkpt>
      <trkpt lat="37.009850" lon="-111.581950">
        <ele>1207.937</ele>
        <time>2018-12-29T06:58:22Z</time>
      </trkpt>
      <trkpt lat="37.009510" lon="-111.581580">
        <ele>1207.985</ele>
        <time>2018-12-29T06:58:42Z</time>
      </trkpt>
      <trkpt lat="37.009240" lon="-111.581260">
        <ele>1206.440</ele>
        <time>2018-12-29T06:59:02Z</time>
      </trkpt>
      <trkpt lat="37.009050" lon="-111.581050">
        <ele>1204.131</ele>
        <time>2018-12-29T06:59:22Z</time>
      </trkpt>
      <trkpt lat="37.008990" lon="-111.580970">
        <ele>1203.465</ele>
        <time>2018-12-29T06:59:42Z</time>
      </trkpt>
      <trkpt lat="37.008760" lon="-111.580710">
        <ele>1200.789</ele>
        <time>2018-12-29T07:00:02Z</time>
      </trkpt>
      <trkpt lat="37.008460" lon="-111.580370">
        <ele>1198.468</ele>
        <time>2018-12-29T07:00:22Z</time>
      </trkpt>
      <trkpt lat="37.008170" lon="-111.580050">
        <ele>1197.543</ele>
        <time>2018-12-29T07:00:42Z</time>
      </trkpt>
      <trkpt lat="37.007890" lon="-111.579730">
        <ele>1196.167</ele>
        <time>2018-12-29T07:01:02Z</time>
      </trkpt>
      <trkpt lat="37.007450" lon="-111.579250">
        <ele>1197.281</ele>
        <time>2018-12-29T07:01:22Z</time>
      </trkpt>
      <trkpt lat="37.007100" lon="-111.578890">
        <ele>1200.419</ele>
        <time>2018-12-29T07:01:42Z</time>
      </trkpt>
      <trkpt lat="37.006650" lon="-111.578400">
        <ele>1204.308</ele>
        <time>2018-12-29T07:02:02Z</time>
      </trkpt>
      <trkpt lat="37.006050" lon="-111.577740">
        <ele>1206.419</ele>
        <time>2018-12-29T07:02:22Z</time>
      </trkpt>
      <trkpt lat="37.006010" lon="-111.577680">
        <ele>1206.427</ele>
        <time>2018-12-29T07:02:42Z</time>
      </trkpt>
      <trkpt lat="37.005990" lon="-111.577650">
        <ele>1206.322</ele>
        <time>2018-12-29T07:03:02Z</time>
      </trkpt>
      <trkpt lat="37.005930" lon="-111.577580">
        <ele>1206.493</ele>
        <time>2018-12-29T07:03:22Z</time>
      </trkpt>
      <trkpt lat="37.005510" lon="-111.577110">
        <ele>1207.227</ele>
        <time>2018-12-29T07:03:42Z</time>
      </trkpt>
      <trkpt lat="37.004860" lon="-111.576400">
        <ele>1210.361</ele>
        <time>2018-12-29T07:04:02Z</time>
      </trkpt>
      <trkpt lat="37.004770" lon="-111.576310">
        <ele>1210.740</ele>
        <time>2018-12-29T07:04:22Z</time>
      </trkpt>
      <trkpt lat="37.004500" lon="-111.576020">
        <ele>1212.255</ele>
        <time>2018-12-29T07:04:42Z</time>
      </trkpt>
      <trkpt lat="37.004410" lon="-111.575920">
        <ele>1212.822</ele>
        <time>2018-12-29T07:05:02Z</time>
      </trkpt>
      <trkpt lat="37.004010" lon="-111.575500">
        <ele>1215.662</ele>
        <time>2018-12-29T07:05:22Z</time>
      </trkpt>
      <trkpt lat="37.003680" lon="-111.575130">
        <ele>1217.708</ele>
        <time>2018-12-29T07:05:42Z</time>
      </trkpt>
      <trkpt lat="37.003260" lon="-111.574670">
        <ele>1220.508</ele>
        <time>2018-12-29T07:06:02Z</time>
      </trkpt>
      <trkpt lat="37.002920" lon="-111.574290">
        <ele>1222.065</ele>
        <time>2018-12-29T07:06:22Z</time>
      </trkpt>
      <trkpt lat="37.002810" lon="-111.574180">
        <ele>1222.443</ele>
        <time>2018-12-29T07:06:42Z</time>
      </trkpt>
      <trkpt lat="37.002480" lon="-111.573810">
        <ele>1224.618</ele>
        <time>2018-12-29T07:07:02Z</time>
      </trkpt>
      <trkpt lat="37.002070" lon="-111.573360">
        <ele>1227.759</ele>
        <time>2018-12-29T07:07:22Z</time>
      </trkpt>
      <trkpt lat="37.002020" lon="-111.573310">
        <ele>1227.923</ele>
        <time>2018-12-29T07:07:42Z</time>
      </trkpt>
      <trkpt lat="37.001660" lon="-111.572920">
        <ele>1229.527</ele>
        <time>2018-12-29T07:08:02Z</time>
      </trkpt>
      <trkpt lat="37.001580" lon="-111.572830">
        <ele>1229.756</ele>
        <time>2018-12-29T07:08:22Z</time>
      </trkpt>
      <trkpt lat="37.001320" lon="-111.572550">
        <ele>1230.511</ele>
        <time>2018-12-29T07:08:42Z</time>
      </trkpt>
      <trkpt lat="37.000930" lon="-111.572110">
        <ele>1231.155</ele>
        <time>2018-12-29T07:09:02Z</time>
      </trkpt>
      <trkpt lat="37.000710" lon="-111.571870">
        <ele>1231.907</ele>
        <time>2018-12-29T07:09:22Z</time>
      </trkpt>
      <trkpt lat="37.000620" lon="-111.571770">
        <ele>1232.417</ele>
        <time>2018-12-29T07:09:42Z</time>
      </trkpt>
      <trkpt lat="37.000330" lon="-111.571460">
        <ele>1233.608</ele>
        <time>2018-12-29T07:10:02Z</time>
      </trkpt>
      <trkpt lat="37.000100" lon="-111.571200">
        <ele>1234.028</ele>
        <time>2018-12-29T07:10:22Z</time>
      </trkpt>
      <trkpt lat="36.999840" lon="-111.570910">
        <ele>1234.066</ele>
        <time>2018-12-29T07:10:42Z</time>
      </trkpt>
      <trkpt lat="36.999670" lon="-111.570730">
        <ele>1234.021</ele>
        <time>2018-12-29T07:11:02Z</time>
      </trkpt>
      <trkpt lat="36.999430" lon="-111.570460">
        <ele>1234.112</ele>
        <time>2018-12-29T07:11:22Z</time>
      </trkpt>
      <trkpt lat="36.998920" lon="-111.569910">
        <ele>1234.796</ele>
        <time>2018-12-29T07:11:42Z</time>
      </trkpt>
      <trkpt lat="36.998440" lon="-111.569380">
        <ele>1235.050</ele>
        <time>2018-12-29T07:12:02Z</time>
      </trkpt>
      <trkpt lat="36.998190" lon="-111.569110">
        <ele>1235.219</ele>
        <time>2018-12-29T07:12:22Z</time>
      </trkpt>
      <trkpt lat="36.997290" lon="-111.568110">
        <ele>1234.594</ele>
        <time>2018-12-29T07:12:42Z</time>
      </trkpt>
      <trkpt lat="36.996890" lon="-111.567670">
        <ele>1234.496</ele>
        <time>2018-12-29T07:13:02Z</time>
      </trkpt>
      <trkpt lat="36.996580" lon="-111.567330">
        <ele>1234.531</ele>
        <time>2018-12-29T07:13:22Z</time>
      </trkpt>
      <trkpt lat="36.996310" lon="-111.567030">
        <ele>1234.724</ele>
        <time>2018-12-29T07:13:42Z</time>
      </trkpt>
      <trkpt lat="36.996180" lon="-111.566890">
        <ele>1235.008</ele>
        <time>2018-12-29T07:14:02Z</time>
      </trkpt>
      <trkpt lat="36.995850" lon="-111.566530">
        <ele>1236.132</ele>
        <time>2018-12-29T07:14:22Z</time>
      </trkpt>
      <trkpt lat="36.995630" lon="-111.566280">
        <ele>1237.080</ele>
        <time>2018-12-29T07:14:42Z</time>
      </trkpt>
      <trkpt lat="36.995390" lon="-111.566020">
        <ele>1238.195</ele>
        <time>2018-12-29T07:15:02Z</time>
      </trkpt>
      <trkpt lat="36.995260" lon="-111.565870">
        <ele>1238.856</ele>
        <time>2018-12-29T07:15:22Z</time>
      </trkpt>
      <trkpt lat="36.995010" lon="-111.565610">
        <ele>1240.320</ele>
        <time>2018-12-29T07:15:42Z</time>
      </trkpt>
      <trkpt lat="36.994940" lon="-111.565530">
        <ele>1240.834</ele>
        <time>2018-12-29T07:16:02Z</time>
      </trkpt>
      <trkpt lat="36.994770" lon="-111.565340">
        <ele>1242.353</ele>
        <time>2018-12-29T07:16:22Z</time>
      </trkpt>
      <trkpt lat="36.994670" lon="-111.565230">
        <ele>1243.418</ele>
        <time>2018-12-29T07:16:42Z</time>
      </trkpt>
      <trkpt lat="36.994590" lon="-111.565140">
        <ele>1244.483</ele>
        <time>2018-12-29T07:17:02Z</time>
      </trkpt>
      <trkpt lat="36.994430" lon="-111.564970">
        <ele>1244.325</ele>
        <time>2018-12-29T07:17:22Z</time>
      </trkpt>
      <trkpt lat="36.994120" lon="-111.564610">
        <ele>1244.517</ele>
        <time>2018-12-29T07:17:42Z</time>
      </trkpt>
      <trkpt lat="36.993700" lon="-111.564150">
        <ele>1247.208</ele>
        <time>2018-12-29T07:18:02Z</time>
      </trkpt>
      <trkpt lat="36.993200" lon="-111.563610">
        <ele>1252.431</ele>
        <time>2018-12-29T07:18:22Z</time>
      </trkpt>
      <trkpt lat="36.992620" lon="-111.562980">
        <ele>1256.329</ele>
        <time>2018-12-29T07:18:42Z</time>
      </trkpt>
      <trkpt lat="36.992220" lon="-111.562540">
        <ele>1258.554</ele>
        <time>2018-12-29T07:19:02Z</time>
      </trkpt>
      <trkpt lat="36.991930" lon="-111.562220">
        <ele>1259.815</ele>
        <time>2018-12-29T07:19:22Z</time>
      </trkpt>
      <trkpt lat="36.991700" lon="-111.561970">
        <ele>1260.739</ele>
        <time>2018-12-29T07:19:42Z</time>
      </trkpt>
      <trkpt lat="36.991590" lon="-111.561850">
        <ele>1261.143</ele>
        <time>2018-12-29T07:20:02Z</time>
      </trkpt>
      <trkpt lat="36.991160" lon="-111.561380">
        <ele>1262.262</ele>
        <time>2018-12-29T07:20:22Z</time>
      </trkpt>
      <trkpt lat="36.990970" lon="-111.561170">
        <ele>1262.527</ele>
        <time>2018-12-29T07:20:42Z</time>
      </trkpt>
      <trkpt lat="36.990740" lon="-111.560920">
        <ele>1262.613</ele>
        <time>2018-12-29T07:21:02Z</time>
      </trkpt>
      <trkpt lat="36.990660" lon="-111.560840">
        <ele>1262.643</ele>
        <time>2018-12-29T07:21:22Z</time>
      </trkpt>
      <trkpt lat="36.990550" lon="-111.560710">
        <ele>1262.607</ele>
        <time>2018-12-29T07:21:42Z</time>
      </trkpt>
      <trkpt lat="36.990240" lon="-111.560370">
        <ele>1262.108</ele>
        <time>2018-12-29T07:22:02Z</time>
      </trkpt>
      <trkpt lat="36.990150" lon="-111.560270">
        <ele>1262.074</ele>
        <time>2018-12-29T07:22:22Z</time>
      </trkpt>
      <trkpt lat="36.990030" lon="-111.560130">
        <ele>1261.632</ele>
        <time>2018-12-29T07:22:42Z</time>
      </trkpt>
      <trkpt lat="36.989820" lon="-111.559900">
        <ele>1261.087</ele>
        <time>2018-12-29T07:23:02Z</time>
      </trkpt>
      <trkpt lat="36.989500" lon="-111.559550">
        <ele>1259.368</ele>
        <time>2018-12-29T07:23:22Z</time>
      </trkpt>
      <trkpt lat="36.989340" lon="-111.559370">
        <ele>1258.232</ele>
        <time>2018-12-29T07:23:42Z</time>
      </trkpt>
      <trkpt lat="36.989260" lon="-111.559280">
        <ele>1257.636</ele>
        <time>2018-12-29T07:24:02Z</time>
      </trkpt>
      <trkpt lat="36.988940" lon="-111.558930">
        <ele>1256.855</ele>
        <time>2018-12-29T07:24:22Z</time>
      </trkpt>
      <trkpt lat="36.988610" lon="-111.558570">
        <ele>1256.680</ele>
        <time>2018-12-29T07:24:42Z</time>
      </trkpt>
      <trkpt lat="36.988250" lon="-111.558170">
        <ele>1255.562</ele>
        <time>2018-12-29T07:25:02Z</time>
      </trkpt>
      <trkpt lat="36.987840" lon="-111.557700">
        <ele>1251.183</ele>
        <time>2018-12-29T07:25:22Z</time>
      </trkpt>
      <trkpt lat="36.987080" lon="-111.556870">
        <ele>1256.711</ele>
        <time>2018-12-29T07:25:42Z</time>
      </trkpt>
      <trkpt lat="36.986690" lon="-111.556400">
        <ele>1257.608</ele>
        <time>2018-12-29T07:26:02Z</time>
      </trkpt>
      <trkpt lat="36.986460" lon="-111.556110">
        <ele>1258.869</ele>
        <time>2018-12-29T07:26:22Z</time>
      </trkpt>
      <trkpt lat="36.986230" lon="-111.555800">
        <ele>1259.827</ele>
        <time>2018-12-29T07:26:42Z</time>
      </trkpt>
      <trkpt lat="36.985870" lon="-111.555280">
        <ele>1260.832</ele>
        <time>2018-12-29T07:27:02Z</time>
      </trkpt>
      <trkpt lat="36.985730" lon="-111.555070">
        <ele>1260.983</ele>
        <time>2018-12-29T07:27:22Z</time>
      </trkpt>
      <trkpt lat="36.985530" lon="-111.554760">
        <ele>1260.987</ele>
        <time>2018-12-29T07:27:42Z</time>
      </trkpt>
      <trkpt lat="36.985320" lon="-111.554420">
        <ele>1260.471</ele>
        <time>2018-12-29T07:28:02Z</time>
      </trkpt>
      <trkpt lat="36.985130" lon="-111.554080">
        <ele>1259.080</ele>
        <time>2018-12-29T07:28:22Z</time>
      </trkpt>
      <trkpt lat="36.985020" lon="-111.553870">
        <ele>1258.485</ele>
        <time>2018-12-29T07:28:42Z</time>
      </trkpt>
      <trkpt lat="36.984820" lon="-111.553520">
        <ele>1258.965</ele>
        <time>2018-12-29T07:29:02Z</time>
      </trkpt>
      <trkpt lat="36.984700" lon="-111.553300">
        <ele>1259.768</ele>
        <time>2018-12-29T07:29:22Z</time>
      </trkpt>
      <trkpt lat="36.984580" lon="-111.553050">
        <ele>1260.514</ele>
        <time>2018-12-29T07:29:42Z</time>
      </trkpt>
      <trkpt lat="36.984470" lon="-111.552840">
        <ele>1261.108</ele>
        <time>2018-12-29T07:30:02Z</time>
      </trkpt>
      <trkpt lat="36.984250" lon="-111.552360">
        <ele>1262.189</ele>
        <time>2018-12-29T07:30:22Z</time>
      </trkpt>
      <trkpt lat="36.984020" lon="-111.551840">
        <ele>1262.457</ele>
        <time>2018-12-29T07:30:42Z</time>
      </trkpt>
      <trkpt lat="36.983970" lon="-111.551720">
        <ele>1262.462</ele>
        <time>2018-12-29T07:31:02Z</time>
      </trkpt>
      <trkpt lat="36.983770" lon="-111.551220">
        <ele>1262.593</ele>
        <time>2018-12-29T07:31:22Z</time>
      </trkpt>
      <trkpt lat="36.983540" lon="-111.550600">
        <ele>1263.167</ele>
        <time>2018-12-29T07:31:42Z</time>
      </trkpt>
      <trkpt lat="36.983350" lon="-111.550070">
        <ele>1263.831</ele>
        <time>2018-12-29T07:32:02Z</time>
      </trkpt>
      <trkpt lat="36.983190" lon="-111.549550">
        <ele>1265.040</ele>
        <time>2018-12-29T07:32:22Z</time>
      </trkpt>
      <trkpt lat="36.983080" lon="-111.549190">
        <ele>1266.335</ele>
        <time>2018-12-29T07:32:42Z</time>
      </trkpt>
      <trkpt lat="36.982910" lon="-111.548560">
        <ele>1269.024</ele>
        <time>2018-12-29T07:33:02Z</time>
      </trkpt>
      <trkpt lat="36.982780" lon="-111.548040">
        <ele>1269.604</ele>
        <time>2018-12-29T07:33:22Z</time>
      </trkpt>
      <trkpt lat="36.982710" lon="-111.547710">
        <ele>1270.414</ele>
        <time>2018-12-29T07:33:42Z</time>
      </trkpt>
      <trkpt lat="36.982600" lon="-111.547200">
        <ele>1271.808</ele>
        <time>2018-12-29T07:34:02Z</time>
      </trkpt>
      <trkpt lat="36.982530" lon="-111.546830">
        <ele>1272.975</ele>
        <time>2018-12-29T07:34:22Z</time>
      </trkpt>
      <trkpt lat="36.982440" lon="-111.546290">
        <ele>1273.843</ele>
        <time>2018-12-29T07:34:42Z</time>
      </trkpt>
      <trkpt lat="36.982360" lon="-111.545680">
        <ele>1274.038</ele>
        <time>2018-12-29T07:35:02Z</time>
      </trkpt>
      <trkpt lat="36.982230" lon="-111.544580">
        <ele>1273.149</ele>
        <time>2018-12-29T07:35:22Z</time>
      </trkpt>
      <trkpt lat="36.982140" lon="-111.543690">
        <ele>1271.153</ele>
        <time>2018-12-29T07:35:42Z</time>
      </trkpt>
      <trkpt lat="36.982020" lon="-111.542690">
        <ele>1269.347</ele>
        <time>2018-12-29T07:36:02Z</time>
      </trkpt>
      <trkpt lat="36.981900" lon="-111.541620">
        <ele>1267.786</ele>
        <time>2018-12-29T07:36:22Z</time>
      </trkpt>
      <trkpt lat="36.981810" lon="-111.540870">
        <ele>1266.791</ele>
        <time>2018-12-29T07:36:42Z</time>
      </trkpt>
      <trkpt lat="36.981710" lon="-111.540070">
        <ele>1265.965</ele>
        <time>2018-12-29T07:37:02Z</time>
      </trkpt>
      <trkpt lat="36.981600" lon="-111.539120">
        <ele>1265.168</ele>
        <time>2018-12-29T07:37:22Z</time>
      </trkpt>
      <trkpt lat="36.981490" lon="-111.538180">
        <ele>1264.214</ele>
        <time>2018-12-29T07:37:42Z</time>
      </trkpt>
      <trkpt lat="36.981400" lon="-111.537360">
        <ele>1263.108</ele>
        <time>2018-12-29T07:38:02Z</time>
      </trkpt>
      <trkpt lat="36.981290" lon="-111.536400">
        <ele>1261.169</ele>
        <time>2018-12-29T07:38:22Z</time>
      </trkpt>
      <trkpt lat="36.981200" lon="-111.535590">
        <ele>1259.097</ele>
        <time>2018-12-29T07:38:42Z</time>
      </trkpt>
      <trkpt lat="36.981100" lon="-111.534780">
        <ele>1258.042</ele>
        <time>2018-12-29T07:39:02Z</time>
      </trkpt>
      <trkpt lat="36.981010" lon="-111.534000">
        <ele>1257.063</ele>
        <time>2018-12-29T07:39:22Z</time>
      </trkpt>
      <trkpt lat="36.980930" lon="-111.533300">
        <ele>1255.667</ele>
        <time>2018-12-29T07:39:42Z</time>
      </trkpt>
      <trkpt lat="36.980830" lon="-111.532490">
        <ele>1253.821</ele>
        <time>2018-12-29T07:40:02Z</time>
      </trkpt>
      <trkpt lat="36.980740" lon="-111.531660">
        <ele>1251.550</ele>
        <time>2018-12-29T07:40:22Z</time>
      </trkpt>
      <trkpt lat="36.980650" lon="-111.530900">
        <ele>1249.225</ele>
        <time>2018-12-29T07:40:42Z</time>
      </trkpt>
      <trkpt lat="36.980570" lon="-111.530150">
        <ele>1246.462</ele>
        <time>2018-12-29T07:41:02Z</time>
      </trkpt>
      <trkpt lat="36.980550" lon="-111.529990">
        <ele>1245.883</ele>
        <time>2018-12-29T07:41:22Z</time>
      </trkpt>
      <trkpt lat="36.980490" lon="-111.529470">
        <ele>1244.511</ele>
        <time>2018-12-29T07:41:42Z</time>
      </trkpt>
      <trkpt lat="36.980410" lon="-111.528730">
        <ele>1244.608</ele>
        <time>2018-12-29T07:42:02Z</time>
      </trkpt>
      <trkpt lat="36.980340" lon="-111.528120">
        <ele>1244.539</ele>
        <time>2018-12-29T07:42:22Z</time>
      </trkpt>
      <trkpt lat="36.980270" lon="-111.527580">
        <ele>1243.297</ele>
        <time>2018-12-29T07:42:42Z</time>
      </trkpt>
      <trkpt lat="36.980200" lon="-111.527000">
        <ele>1242.072</ele>
        <time>2018-12-29T07:43:02Z</time>
      </trkpt>
      <trkpt lat="36.980180" lon="-111.526800">
        <ele>1241.563</ele>
        <time>2018-12-29T07:43:22Z</time>
      </trkpt>
      <trkpt lat="36.980100" lon="-111.526410">
        <ele>1240.237</ele>
        <time>2018-12-29T07:43:42Z</time>
      </trkpt>
      <trkpt lat="36.980030" lon="-111.526050">
        <ele>1238.761</ele>
        <time>2018-12-29T07:44:02Z</time>
      </trkpt>
      <trkpt lat="36.979980" lon="-111.525820">
        <ele>1237.980</ele>
        <time>2018-12-29T07:44:22Z</time>
      </trkpt>
      <trkpt lat="36.979960" lon="-111.525750">
        <ele>1237.695</ele>
        <time>2018-12-29T07:44:42Z</time>
      </trkpt>
      <trkpt lat="36.979870" lon="-111.525390">
        <ele>1236.585</ele>
        <time>2018-12-29T07:45:02Z</time>
      </trkpt>
      <trkpt lat="36.979830" lon="-111.525240">
        <ele>1236.189</ele>
        <time>2018-12-29T07:45:22Z</time>
      </trkpt>
      <trkpt lat="36.979750" lon="-111.524980">
        <ele>1235.617</ele>
        <time>2018-12-29T07:45:42Z</time>
      </trkpt>
      <trkpt lat="36.979700" lon="-111.524800">
        <ele>1235.308</ele>
        <time>2018-12-29T07:46:02Z</time>
      </trkpt>
      <trkpt lat="36.979630" lon="-111.524600">
        <ele>1235.091</ele>
        <time>2018-12-29T07:46:22Z</time>
      </trkpt>
      <trkpt lat="36.979500" lon="-111.524190">
        <ele>1233.879</ele>
        <time>2018-12-29T07:46:42Z</time>
      </trkpt>
      <trkpt lat="36.979380" lon="-111.523890">
        <ele>1233.464</ele>
        <time>2018-12-29T07:47:02Z</time>
      </trkpt>
      <trkpt lat="36.979200" lon="-111.523470">
        <ele>1233.595</ele>
        <time>2018-12-29T07:47:22Z</time>
      </trkpt>
      <trkpt lat="36.979120" lon="-111.523280">
        <ele>1233.529</ele>
        <time>2018-12-29T07:47:42Z</time>
      </trkpt>
      <trkpt lat="36.979010" lon="-111.523010">
        <ele>1233.523</ele>
        <time>2018-12-29T07:48:02Z</time>
      </trkpt>
      <trkpt lat="36.978800" lon="-111.522590">
        <ele>1233.762</ele>
        <time>2018-12-29T07:48:22Z</time>
      </trkpt>
      <trkpt lat="36.978690" lon="-111.522370">
        <ele>1233.797</ele>
        <time>2018-12-29T07:48:42Z</time>
      </trkpt>
      <trkpt lat="36.978510" lon="-111.522040">
        <ele>1233.776</ele>
        <time>2018-12-29T07:49:02Z</time>
      </trkpt>
      <trkpt lat="36.978340" lon="-111.521750">
        <ele>1233.790</ele>
        <time>2018-12-29T07:49:22Z</time>
      </trkpt>
      <trkpt lat="36.978240" lon="-111.521590">
        <ele>1233.919</ele>
        <time>2018-12-29T07:49:42Z</time>
      </trkpt>
      <trkpt lat="36.978070" lon="-111.521310">
        <ele>1233.708</ele>
        <time>2018-12-29T07:50:02Z</time>
      </trkpt>
      <trkpt lat="36.977830" lon="-111.520940">
        <ele>1232.670</ele>
        <time>2018-12-29T07:50:22Z</time>
      </trkpt>
      <trkpt lat="36.977610" lon="-111.520640">
        <ele>1231.548</ele>
        <time>2018-12-29T07:50:42Z</time>
      </trkpt>
      <trkpt lat="36.977540" lon="-111.520540">
        <ele>1231.463</ele>
        <time>2018-12-29T07:51:02Z</time>
      </trkpt>
      <trkpt lat="36.977400" lon="-111.520370">
        <ele>1231.224</ele>
        <time>2018-12-29T07:51:22Z</time>
      </trkpt>
      <trkpt lat="36.977270" lon="-111.520200">
        <ele>1230.918</ele>
        <time>2018-12-29T07:51:42Z</time>
      </trkpt>
      <trkpt lat="36.977120" lon="-111.520010">
        <ele>1230.372</ele>
        <time>2018-12-29T07:52:02Z</time>
      </trkpt>
      <trkpt lat="36.976790" lon="-111.519630">
        <ele>1229.261</ele>
        <time>2018-12-29T07:52:22Z</time>
      </trkpt>
      <trkpt lat="36.976580" lon="-111.519410">
        <ele>1229.066</ele>
        <time>2018-12-29T07:52:42Z</time>
      </trkpt>
      <trkpt lat="36.976250" lon="-111.519100">
        <ele>1229.419</ele>
        <time>2018-12-29T07:53:02Z</time>
      </trkpt>
      <trkpt lat="36.975980" lon="-111.518860">
        <ele>1229.609</ele>
        <time>2018-12-29T07:53:22Z</time>
      </trkpt>
      <trkpt lat="36.975640" lon="-111.518560">
        <ele>1229.319</ele>
        <time>2018-12-29T07:53:42Z</time>
      </trkpt>
      <trkpt lat="36.975310" lon="-111.518290">
        <ele>1228.908</ele>
        <time>2018-12-29T07:54:02Z</time>
      </trkpt>
      <trkpt lat="36.974460" lon="-111.517660">
        <ele>1229.214</ele>
        <time>2018-12-29T07:54:22Z</time>
      </trkpt>
      <trkpt lat="36.972830" lon="-111.516460">
        <ele>1233.572</ele>
        <time>2018-12-29T07:54:42Z</time>
      </trkpt>
      <trkpt lat="36.972220" lon="-111.516010">
        <ele>1235.327</ele>
        <time>2018-12-29T07:55:02Z</time>
      </trkpt>
      <trkpt lat="36.971170" lon="-111.515220">
        <ele>1237.458</ele>
        <time>2018-12-29T07:55:22Z</time>
      </trkpt>
      <trkpt lat="36.970270" lon="-111.514550">
        <ele>1239.152</ele>
        <time>2018-12-29T07:55:42Z</time>
      </trkpt>
      <trkpt lat="36.966230" lon="-111.511540">
        <ele>1250.236</ele>
        <time>2018-12-29T07:56:02Z</time>
      </trkpt>
      <trkpt lat="36.965830" lon="-111.511240">
        <ele>1251.665</ele>
        <time>2018-12-29T07:56:22Z</time>
      </trkpt>
      <trkpt lat="36.965220" lon="-111.510790">
        <ele>1253.420</ele>
        <time>2018-12-29T07:56:42Z</time>
      </trkpt>
      <trkpt lat="36.964180" lon="-111.510020">
        <ele>1255.935</ele>
        <time>2018-12-29T07:57:02Z</time>
      </trkpt>
      <trkpt lat="36.963200" lon="-111.509300">
        <ele>1256.886</ele>
        <time>2018-12-29T07:57:22Z</time>
      </trkpt>
      <trkpt lat="36.962590" lon="-111.508830">
        <ele>1256.714</ele>
        <time>2018-12-29T07:57:42Z</time>
      </trkpt>
      <trkpt lat="36.962320" lon="-111.508620">
        <ele>1256.708</ele>
        <time>2018-12-29T07:58:02Z</time>
      </trkpt>
      <trkpt lat="36.962090" lon="-111.508450">
        <ele>1256.736</ele>
        <time>2018-12-29T07:58:22Z</time>
      </trkpt>
      <trkpt lat="36.961970" lon="-111.508360">
        <ele>1256.724</ele>
        <time>2018-12-29T07:58:42Z</time>
      </trkpt>
      <trkpt lat="36.961630" lon="-111.508070">
        <ele>1256.329</ele>
        <time>2018-12-29T07:59:02Z</time>
      </trkpt>
      <trkpt lat="36.961350" lon="-111.507840">
        <ele>1255.640</ele>
        <time>2018-12-29T07:59:22Z</time>
      </trkpt>
      <trkpt lat="36.960670" lon="-111.507250">
        <ele>1255.244</ele>
        <time>2018-12-29T07:59:42Z</time>
      </trkpt>
      <trkpt lat="36.960170" lon="-111.506800">
        <ele>1255.198</ele>
        <time>2018-12-29T08:00:02Z</time>
      </trkpt>
      <trkpt lat="36.959770" lon="-111.506420">
        <ele>1254.817</ele>
        <time>2018-12-29T08:00:22Z</time>
      </trkpt>
      <trkpt lat="36.959260" lon="-111.505930">
        <ele>1253.782</ele>
        <time>2018-12-29T08:00:42Z</time>
      </trkpt>
      <trkpt lat="36.958530" lon="-111.505190">
        <ele>1250.253</ele>
        <time>2018-12-29T08:01:02Z</time>
      </trkpt>
      <trkpt lat="36.958390" lon="-111.505040">
        <ele>1249.304</ele>
        <time>2018-12-29T08:01:22Z</time>
      </trkpt>
      <trkpt lat="36.957950" lon="-111.504590">
        <ele>1246.414</ele>
        <time>2018-12-29T08:01:42Z</time>
      </trkpt>
      <trkpt lat="36.957620" lon="-111.504260">
        <ele>1244.508</ele>
        <time>2018-12-29T08:02:02Z</time>
      </trkpt>
      <trkpt lat="36.956610" lon="-111.503230">
        <ele>1236.718</ele>
        <time>2018-12-29T08:02:22Z</time>
      </trkpt>
      <trkpt lat="36.956290" lon="-111.502900">
        <ele>1235.196</ele>
        <time>2018-12-29T08:02:42Z</time>
      </trkpt>
      <trkpt lat="36.956040" lon="-111.502660">
        <ele>1235.371</ele>
        <time>2018-12-29T08:03:02Z</time>
      </trkpt>
      <trkpt lat="36.955780" lon="-111.502410">
        <ele>1235.332</ele>
        <time>2018-12-29T08:03:22Z</time>
      </trkpt>
      <trkpt lat="36.955480" lon="-111.502100">
        <ele>1234.926</ele>
        <time>2018-12-29T08:03:42Z</time>
      </trkpt>
      <trkpt lat="36.955070" lon="-111.501690">
        <ele>1233.510</ele>
        <time>2018-12-29T08:04:02Z</time>
      </trkpt>
      <trkpt lat="36.954650" lon="-111.501260">
        <ele>1230.829</ele>
        <time>2018-12-29T08:04:22Z</time>
      </trkpt>
      <trkpt lat="36.954330" lon="-111.500930">
        <ele>1229.224</ele>
        <time>2018-12-29T08:04:42Z</time>
      </trkpt>
      <trkpt lat="36.954000" lon="-111.500600">
        <ele>1229.057</ele>
        <time>2018-12-29T08:05:02Z</time>
      </trkpt>
      <trkpt lat="36.953700" lon="-111.500280">
        <ele>1227.300</ele>
        <time>2018-12-29T08:05:22Z</time>
      </trkpt>
      <trkpt lat="36.953030" lon="-111.499670">
        <ele>1228.420</ele>
        <time>2018-12-29T08:05:42Z</time>
      </trkpt>
      <trkpt lat="36.952850" lon="-111.499520">
        <ele>1228.908</ele>
        <time>2018-12-29T08:06:02Z</time>
      </trkpt>
      <trkpt lat="36.952430" lon="-111.499180">
        <ele>1229.698</ele>
        <time>2018-12-29T08:06:22Z</time>
      </trkpt>
      <trkpt lat="36.952010" lon="-111.498850">
        <ele>1229.296</ele>
        <time>2018-12-29T08:06:42Z</time>
      </trkpt>
      <trkpt lat="36.951940" lon="-111.498790">
        <ele>1229.121</ele>
        <time>2018-12-29T08:07:02Z</time>
      </trkpt>
      <trkpt lat="36.951810" lon="-111.498690">
        <ele>1228.812</ele>
        <time>2018-12-29T08:07:22Z</time>
      </trkpt>
      <trkpt lat="36.951790" lon="-111.498680">
        <ele>1228.836</ele>
        <time>2018-12-29T08:07:42Z</time>
      </trkpt>
      <trkpt lat="36.951620" lon="-111.498550">
        <ele>1228.420</ele>
        <time>2018-12-29T08:08:02Z</time>
      </trkpt>
      <trkpt lat="36.951240" lon="-111.498300">
        <ele>1227.979</ele>
        <time>2018-12-29T08:08:22Z</time>
      </trkpt>
      <trkpt lat="36.950980" lon="-111.498140">
        <ele>1227.324</ele>
        <time>2018-12-29T08:08:42Z</time>
      </trkpt>
      <trkpt lat="36.950940" lon="-111.498110">
        <ele>1227.164</ele>
        <time>2018-12-29T08:09:02Z</time>
      </trkpt>
      <trkpt lat="36.950580" lon="-111.497900">
        <ele>1225.706</ele>
        <time>2018-12-29T08:09:22Z</time>
      </trkpt>
      <trkpt lat="36.950550" lon="-111.497870">
        <ele>1225.516</ele>
        <time>2018-12-29T08:09:42Z</time>
      </trkpt>
      <trkpt lat="36.950320" lon="-111.497750">
        <ele>1224.808</ele>
        <time>2018-12-29T08:10:02Z</time>
      </trkpt>
      <trkpt lat="36.950150" lon="-111.497640">
        <ele>1224.449</ele>
        <time>2018-12-29T08:10:22Z</time>
      </trkpt>
      <trkpt lat="36.949950" lon="-111.497540">
        <ele>1224.177</ele>
        <time>2018-12-29T08:10:42Z</time>
      </trkpt>
      <trkpt lat="36.949800" lon="-111.497460">
        <ele>1223.842</ele>
        <time>2018-12-29T08:11:02Z</time>
      </trkpt>
      <trkpt lat="36.949650" lon="-111.497390">
        <ele>1223.523</ele>
        <time>2018-12-29T08:11:22Z</time>
      </trkpt>
      <trkpt lat="36.949510" lon="-111.497310">
        <ele>1223.077</ele>
        <time>2018-12-29T08:11:42Z</time>
      </trkpt>
      <trkpt lat="36.949190" lon="-111.497170">
        <ele>1221.351</ele>
        <time>2018-12-29T08:12:02Z</time>
      </trkpt>
      <trkpt lat="36.948940" lon="-111.497070">
        <ele>1219.430</ele>
        <time>2018-12-29T08:12:22Z</time>
      </trkpt>
      <trkpt lat="36.948540" lon="-111.496910">
        <ele>1217.845</ele>
        <time>2018-12-29T08:12:42Z</time>
      </trkpt>
      <trkpt lat="36.947910" lon="-111.496680">
        <ele>1213.347</ele>
        <time>2018-12-29T08:13:02Z</time>
      </trkpt>
      <trkpt lat="36.947220" lon="-111.496490">
        <ele>1209.729</ele>
        <time>2018-12-29T08:13:22Z</time>
      </trkpt>
      <trkpt lat="36.946760" lon="-111.496380">
        <ele>1206.621</ele>
        <time>2018-12-29T08:13:42Z</time>
      </trkpt>
      <trkpt lat="36.945550" lon="-111.496130">
        <ele>1196.608</ele>
        <time>2018-12-29T08:14:02Z</time>
      </trkpt>
      <trkpt lat="36.945000" lon="-111.496040">
        <ele>1194.357</ele>
        <time>2018-12-29T08:14:22Z</time>
      </trkpt>
      <trkpt lat="36.944530" lon="-111.495950">
        <ele>1192.535</ele>
        <time>2018-12-29T08:14:42Z</time>
      </trkpt>
      <trkpt lat="36.944280" lon="-111.495910">
        <ele>1190.750</ele>
        <time>2018-12-29T08:15:02Z</time>
      </trkpt>
      <trkpt lat="36.943930" lon="-111.495840">
        <ele>1187.671</ele>
        <time>2018-12-29T08:15:22Z</time>
      </trkpt>
      <trkpt lat="36.943610" lon="-111.495790">
        <ele>1186.245</ele>
        <time>2018-12-29T08:15:42Z</time>
      </trkpt>
      <trkpt lat="36.943180" lon="-111.495700">
        <ele>1182.759</ele>
        <time>2018-12-29T08:16:02Z</time>
      </trkpt>
      <trkpt lat="36.942870" lon="-111.495650">
        <ele>1180.658</ele>
        <time>2018-12-29T08:16:22Z</time>
      </trkpt>
      <trkpt lat="36.942530" lon="-111.495580">
        <ele>1179.013</ele>
        <time>2018-12-29T08:16:42Z</time>
      </trkpt>
      <trkpt lat="36.942120" lon="-111.495490">
        <ele>1177.932</ele>
        <time>2018-12-29T08:17:02Z</time>
      </trkpt>
      <trkpt lat="36.941810" lon="-111.495430">
        <ele>1177.792</ele>
        <time>2018-12-29T08:17:22Z</time>
      </trkpt>
      <trkpt lat="36.941470" lon="-111.495350">
        <ele>1177.211</ele>
        <time>2018-12-29T08:17:42Z</time>
      </trkpt>
      <trkpt lat="36.941410" lon="-111.495330">
        <ele>1176.908</ele>
        <time>2018-12-29T08:18:02Z</time>
      </trkpt>
      <trkpt lat="36.940940" lon="-111.495230">
        <ele>1175.416</ele>
        <time>2018-12-29T08:18:22Z</time>
      </trkpt>
      <trkpt lat="36.940710" lon="-111.495180">
        <ele>1175.564</ele>
        <time>2018-12-29T08:18:42Z</time>
      </trkpt>
      <trkpt lat="36.940410" lon="-111.495120">
        <ele>1176.439</ele>
        <time>2018-12-29T08:19:02Z</time>
      </trkpt>
      <trkpt lat="36.940120" lon="-111.495070">
        <ele>1177.670</ele>
        <time>2018-12-29T08:19:22Z</time>
      </trkpt>
      <trkpt lat="36.939860" lon="-111.495000">
        <ele>1178.484</ele>
        <time>2018-12-29T08:19:42Z</time>
      </trkpt>
      <trkpt lat="36.939540" lon="-111.494900">
        <ele>1178.888</ele>
        <time>2018-12-29T08:20:02Z</time>
      </trkpt>
      <trkpt lat="36.939440" lon="-111.494860">
        <ele>1178.257</ele>
        <time>2018-12-29T08:20:22Z</time>
      </trkpt>
      <trkpt lat="36.939310" lon="-111.494800">
        <ele>1177.642</ele>
        <time>2018-12-29T08:20:42Z</time>
      </trkpt>
      <trkpt lat="36.939200" lon="-111.494750">
        <ele>1177.749</ele>
        <time>2018-12-29T08:21:02Z</time>
      </trkpt>
      <trkpt lat="36.939010" lon="-111.494650">
        <ele>1177.602</ele>
        <time>2018-12-29T08:21:22Z</time>
      </trkpt>
      <trkpt lat="36.938730" lon="-111.494490">
        <ele>1177.422</ele>
        <time>2018-12-29T08:21:42Z</time>
      </trkpt>
      <trkpt lat="36.938590" lon="-111.494390">
        <ele>1177.408</ele>
        <time>2018-12-29T08:22:02Z</time>
      </trkpt>
      <trkpt lat="36.938350" lon="-111.494240">
        <ele>1177.367</ele>
        <time>2018-12-29T08:22:22Z</time>
      </trkpt>
      <trkpt lat="36.938200" lon="-111.494130">
        <ele>1177.535</ele>
        <time>2018-12-29T08:22:42Z</time>
      </trkpt>
      <trkpt lat="36.938040" lon="-111.493990">
        <ele>1177.480</ele>
        <time>2018-12-29T08:23:02Z</time>
      </trkpt>
      <trkpt lat="36.937990" lon="-111.493950">
        <ele>1177.471</ele>
        <time>2018-12-29T08:23:22Z</time>
      </trkpt>
      <trkpt lat="36.937750" lon="-111.493690">
        <ele>1176.725</ele>
        <time>2018-12-29T08:23:42Z</time>
      </trkpt>
      <trkpt lat="36.937660" lon="-111.493590">
        <ele>1178.019</ele>
        <time>2018-12-29T08:24:02Z</time>
      </trkpt>
      <trkpt lat="36.937530" lon="-111.493440">
        <ele>1176.768</ele>
        <time>2018-12-29T08:24:22Z</time>
      </trkpt>
      <trkpt lat="36.937390" lon="-111.493270">
        <ele>1178.533</ele>
        <time>2018-12-29T08:24:42Z</time>
      </trkpt>
      <trkpt lat="36.937260" lon="-111.493080">
        <ele>1176.789</ele>
        <time>2018-12-29T08:25:02Z</time>
      </trkpt>
      <trkpt lat="36.937130" lon="-111.492900">
        <ele>1177.106</ele>
        <time>2018-12-29T08:25:22Z</time>
      </trkpt>
      <trkpt lat="36.936920" lon="-111.492570">
        <ele>1177.526</ele>
        <time>2018-12-29T08:25:42Z</time>
      </trkpt>
      <trkpt lat="36.936810" lon="-111.492400">
        <ele>1178.408</ele>
        <time>2018-12-29T08:26:02Z</time>
      </trkpt>
      <trkpt lat="36.936550" lon="-111.492030">
        <ele>1182.031</ele>
        <time>2018-12-29T08:26:22Z</time>
      </trkpt>
      <trkpt lat="36.935270" lon="-111.490140">
        <ele>1189.929</ele>
        <time>2018-12-29T08:26:42Z</time>
      </trkpt>
      <trkpt lat="36.935090" lon="-111.489830">
        <ele>1187.684</ele>
        <time>2018-12-29T08:27:02Z</time>
      </trkpt>
      <trkpt lat="36.934930" lon="-111.489540">
        <ele>1185.615</ele>
        <time>2018-12-29T08:27:22Z</time>
      </trkpt>
      <trkpt lat="36.934830" lon="-111.489350">
        <ele>1183.779</ele>
        <time>2018-12-29T08:27:42Z</time>
      </trkpt>
      <trkpt lat="36.934740" lon="-111.489170">
        <ele>1185.783</ele>
        <time>2018-12-29T08:28:02Z</time>
      </trkpt>
      <trkpt lat="36.934660" lon="-111.488980">
        <ele>1184.542</ele>
        <time>2018-12-29T08:28:22Z</time>
      </trkpt>
      <trkpt lat="36.934610" lon="-111.488820">
        <ele>1182.287</ele>
        <time>2018-12-29T08:28:42Z</time>
      </trkpt>
      <trkpt lat="36.934560" lon="-111.488640">
        <ele>1181.513</ele>
        <time>2018-12-29T08:29:02Z</time>
      </trkpt>
      <trkpt lat="36.934530" lon="-111.488520">
        <ele>1182.143</ele>
        <time>2018-12-29T08:29:22Z</time>
      </trkpt>
      <trkpt lat="36.934500" lon="-111.488410">
        <ele>1182.607</ele>
        <time>2018-12-29T08:29:42Z</time>
      </trkpt>
      <trkpt lat="36.934490" lon="-111.488310">
        <ele>1182.908</ele>
        <time>2018-12-29T08:30:02Z</time>
      </trkpt>
      <trkpt lat="36.934460" lon="-111.488170">
        <ele>1182.984</ele>
        <time>2018-12-29T08:30:22Z</time>
      </trkpt>
      <trkpt lat="36.934450" lon="-111.488040">
        <ele>1182.572</ele>
        <time>2018-12-29T08:30:42Z</time>
      </trkpt>
      <trkpt lat="36.934440" lon="-111.487880">
        <ele>1181.997</ele>
        <time>2018-12-29T08:31:02Z</time>
      </trkpt>
      <trkpt lat="36.934430" lon="-111.487760">
        <ele>1181.368</ele>
        <time>2018-12-29T08:31:22Z</time>
      </trkpt>
      <trkpt lat="36.934430" lon="-111.487510">
        <ele>1179.812</ele>
        <time>2018-12-29T08:31:42Z</time>
      </trkpt>
      <trkpt lat="36.934430" lon="-111.487380">
        <ele>1178.896</ele>
        <time>2018-12-29T08:32:02Z</time>
      </trkpt>
      <trkpt lat="36.934440" lon="-111.487240">
        <ele>1177.875</ele>
        <time>2018-12-29T08:32:22Z</time>
      </trkpt>
      <trkpt lat="36.934460" lon="-111.487100">
        <ele>1176.740</ele>
        <time>2018-12-29T08:32:42Z</time>
      </trkpt>
      <trkpt lat="36.934490" lon="-111.486920">
        <ele>1174.448</ele>
        <time>2018-12-29T08:33:02Z</time>
      </trkpt>
      <trkpt lat="36.934520" lon="-111.486790">
        <ele>1172.561</ele>
        <time>2018-12-29T08:33:22Z</time>
      </trkpt>
      <trkpt lat="36.934540" lon="-111.486690">
        <ele>1171.917</ele>
        <time>2018-12-29T08:33:42Z</time>
      </trkpt>
      <trkpt lat="36.934610" lon="-111.486420">
        <ele>1170.608</ele>
        <time>2018-12-29T08:34:02Z</time>
      </trkpt>
      <trkpt lat="36.934720" lon="-111.486000">
        <ele>1169.577</ele>
        <time>2018-12-29T08:34:22Z</time>
      </trkpt>
      <trkpt lat="36.934880" lon="-111.485480">
        <ele>1167.475</ele>
        <time>2018-12-29T08:34:42Z</time>
      </trkpt>
      <trkpt lat="36.934990" lon="-111.485120">
        <ele>1155.310</ele>
        <time>2018-12-29T08:35:02Z</time>
      </trkpt>
      <trkpt lat="36.935000" lon="-111.485070">
        <ele>1135.631</ele>
        <time>2018-12-29T08:35:22Z</time>
      </trkpt>
      <trkpt lat="36.935020" lon="-111.485040">
        <ele>1123.165</ele>
        <time>2018-12-29T08:35:42Z</time>
      </trkpt>
      <trkpt lat="36.935040" lon="-111.485010">
        <ele>1110.479</ele>
        <time>2018-12-29T08:36:02Z</time>
      </trkpt>
      <trkpt lat="36.935070" lon="-111.484990">
        <ele>1101.028</ele>
        <time>2018-12-29T08:36:22Z</time>
      </trkpt>
      <trkpt lat="36.935090" lon="-111.484950">
        <ele>1083.853</ele>
        <time>2018-12-29T08:36:42Z</time>
      </trkpt>
      <trkpt lat="36.935120" lon="-111.484910">
        <ele>1065.656</ele>
        <time>2018-12-29T08:37:02Z</time>
      </trkpt>
      <trkpt lat="36.935140" lon="-111.484860">
        <ele>1044.059</ele>
        <time>2018-12-29T08:37:22Z</time>
      </trkpt>
      <trkpt lat="36.935160" lon="-111.484810">
        <ele>1038.014</ele>
        <time>2018-12-29T08:37:42Z</time>
      </trkpt>
      <trkpt lat="36.935370" lon="-111.484320">
        <ele>966.508</ele>
        <time>2018-12-29T08:38:02Z</time>
      </trkpt>
      <trkpt lat="36.935910" lon="-111.482530">
        <ele>958.178</ele>
        <time>2018-12-29T08:38:22Z</time>
      </trkpt>
      <trkpt lat="36.935960" lon="-111.482350">
        <ele>961.166</ele>
        <time>2018-12-29T08:38:42Z</time>
      </trkpt>
      <trkpt lat="36.935990" lon="-111.482230">
        <ele>983.181</ele>
        <time>2018-12-29T08:39:02Z</time>
      </trkpt>
      <trkpt lat="36.936030" lon="-111.482000">
        <ele>1028.652</ele>
        <time>2018-12-29T08:39:22Z</time>
      </trkpt>
      <trkpt lat="36.936070" lon="-111.481760">
        <ele>1084.096</ele>
        <time>2018-12-29T08:39:42Z</time>
      </trkpt>
      <trkpt lat="36.936100" lon="-111.481520">
        <ele>1141.150</ele>
        <time>2018-12-29T08:40:02Z</time>
      </trkpt>
      <trkpt lat="36.936130" lon="-111.481360">
        <ele>1156.489</ele>
        <time>2018-12-29T08:40:22Z</time>
      </trkpt>
      <trkpt lat="36.936150" lon="-111.481280">
        <ele>1162.984</ele>
        <time>2018-12-29T08:40:42Z</time>
      </trkpt>
      <trkpt lat="36.936240" lon="-111.480960">
        <ele>1166.836</ele>
        <time>2018-12-29T08:41:02Z</time>
      </trkpt>
      <trkpt lat="36.936320" lon="-111.480630">
        <ele>1166.117</ele>
        <time>2018-12-29T08:41:22Z</time>
      </trkpt>
      <trkpt lat="36.936350" lon="-111.480450">
        <ele>1166.318</ele>
        <time>2018-12-29T08:41:42Z</time>
      </trkpt>
      <trkpt lat="36.936370" lon="-111.480270">
        <ele>1166.108</ele>
        <time>2018-12-29T08:42:02Z</time>
      </trkpt>
      <trkpt lat="36.936370" lon="-111.480100">
        <ele>1165.896</ele>
        <time>2018-12-29T08:42:22Z</time>
      </trkpt>
      <trkpt lat="36.936380" lon="-111.480000">
        <ele>1165.634</ele>
        <time>2018-12-29T08:42:42Z</time>
      </trkpt>
      <trkpt lat="36.936370" lon="-111.479870">
        <ele>1165.279</ele>
        <time>2018-12-29T08:43:02Z</time>
      </trkpt>
      <trkpt lat="36.936360" lon="-111.479750">
        <ele>1165.450</ele>
        <time>2018-12-29T08:43:22Z</time>
      </trkpt>
      <trkpt lat="36.936350" lon="-111.479660">
        <ele>1165.674</ele>
        <time>2018-12-29T08:43:42Z</time>
      </trkpt>
      <trkpt lat="36.936330" lon="-111.479530">
        <ele>1165.988</ele>
        <time>2018-12-29T08:44:02Z</time>
      </trkpt>
      <trkpt lat="36.936300" lon="-111.479390">
        <ele>1166.557</ele>
        <time>2018-12-29T08:44:22Z</time>
      </trkpt>
      <trkpt lat="36.936260" lon="-111.479240">
        <ele>1167.452</ele>
        <time>2018-12-29T08:44:42Z</time>
      </trkpt>
      <trkpt lat="36.936200" lon="-111.479040">
        <ele>1169.028</ele>
        <time>2018-12-29T08:45:02Z</time>
      </trkpt>
      <trkpt lat="36.936130" lon="-111.478860">
        <ele>1169.789</ele>
        <time>2018-12-29T08:45:22Z</time>
      </trkpt>
      <trkpt lat="36.936040" lon="-111.478690">
        <ele>1170.017</ele>
        <time>2018-12-29T08:45:42Z</time>
      </trkpt>
      <trkpt lat="36.935920" lon="-111.478480">
        <ele>1170.408</ele>
        <time>2018-12-29T08:46:02Z</time>
      </trkpt>
      <trkpt lat="36.935690" lon="-111.478100">
        <ele>1172.065</ele>
        <time>2018-12-29T08:46:22Z</time>
      </trkpt>
      <trkpt lat="36.935290" lon="-111.477450">
        <ele>1176.753</ele>
        <time>2018-12-29T08:46:42Z</time>
      </trkpt>
      <trkpt lat="36.934760" lon="-111.476610">
        <ele>1181.148</ele>
        <time>2018-12-29T08:47:02Z</time>
      </trkpt>
      <trkpt lat="36.934520" lon="-111.476230">
        <ele>1183.029</ele>
        <time>2018-12-29T08:47:22Z</time>
      </trkpt>
      <trkpt lat="36.934320" lon="-111.475910">
        <ele>1184.213</ele>
        <time>2018-12-29T08:47:42Z</time>
      </trkpt>
      <trkpt lat="36.934110" lon="-111.475590">
        <ele>1185.617</ele>
        <time>2018-12-29T08:48:02Z</time>
      </trkpt>
      <trkpt lat="36.934030" lon="-111.475460">
        <ele>1186.046</ele>
        <time>2018-12-29T08:48:22Z</time>
      </trkpt>
      <trkpt lat="36.933850" lon="-111.475180">
        <ele>1186.981</ele>
        <time>2018-12-29T08:48:42Z</time>
      </trkpt>
      <trkpt lat="36.933640" lon="-111.474910">
        <ele>1187.729</ele>
        <time>2018-12-29T08:49:02Z</time>
      </trkpt>
      <trkpt lat="36.933420" lon="-111.474630">
        <ele>1188.800</ele>
        <time>2018-12-29T08:49:22Z</time>
      </trkpt>
      <trkpt lat="36.933130" lon="-111.474310">
        <ele>1190.420</ele>
        <time>2018-12-29T08:49:42Z</time>
      </trkpt>
      <trkpt lat="36.932910" lon="-111.474100">
        <ele>1191.308</ele>
        <time>2018-12-29T08:50:02Z</time>
      </trkpt>
      <trkpt lat="36.932530" lon="-111.473780">
        <ele>1193.065</ele>
        <time>2018-12-29T08:50:22Z</time>
      </trkpt>
      <trkpt lat="36.932390" lon="-111.473670">
        <ele>1193.683</ele>
        <time>2018-12-29T08:50:42Z</time>
      </trkpt>
      <trkpt lat="36.932050" lon="-111.473430">
        <ele>1195.668</ele>
        <time>2018-12-29T08:51:02Z</time>
      </trkpt>
      <trkpt lat="36.931710" lon="-111.473220">
        <ele>1198.669</ele>
        <time>2018-12-29T08:51:22Z</time>
      </trkpt>
      <trkpt lat="36.931290" lon="-111.473010">
        <ele>1200.753</ele>
        <time>2018-12-29T08:51:42Z</time>
      </trkpt>
      <trkpt lat="36.931190" lon="-111.472960">
        <ele>1200.987</ele>
        <time>2018-12-29T08:52:02Z</time>
      </trkpt>
      <trkpt lat="36.931010" lon="-111.472880">
        <ele>1201.176</ele>
        <time>2018-12-29T08:52:22Z</time>
      </trkpt>
      <trkpt lat="36.930630" lon="-111.472730">
        <ele>1202.181</ele>
        <time>2018-12-29T08:52:42Z</time>
      </trkpt>
      <trkpt lat="36.930350" lon="-111.472670">
        <ele>1203.349</ele>
        <time>2018-12-29T08:53:02Z</time>
      </trkpt>
      <trkpt lat="36.930140" lon="-111.472640">
        <ele>1203.802</ele>
        <time>2018-12-29T08:53:22Z</time>
      </trkpt>
      <trkpt lat="36.930100" lon="-111.472630">
        <ele>1203.922</ele>
        <time>2018-12-29T08:53:42Z</time>
      </trkpt>
      <trkpt lat="36.929850" lon="-111.472590">
        <ele>1204.308</ele>
        <time>2018-12-29T08:54:02Z</time>
      </trkpt>
      <trkpt lat="36.929420" lon="-111.472540">
        <ele>1204.677</ele>
        <time>2018-12-29T08:54:22Z</time>
      </trkpt>
      <trkpt lat="36.929030" lon="-111.472490">
        <ele>1204.735</ele>
        <time>2018-12-29T08:54:42Z</time>
      </trkpt>
      <trkpt lat="36.928490" lon="-111.472430">
        <ele>1206.010</ele>
        <time>2018-12-29T08:55:02Z</time>
      </trkpt>
      <trkpt lat="36.928010" lon="-111.472380">
        <ele>1208.831</ele>
        <time>2018-12-29T08:55:22Z</time>
      </trkpt>
      <trkpt lat="36.927860" lon="-111.472360">
        <ele>1209.695</ele>
        <time>2018-12-29T08:55:42Z</time>
      </trkpt>
      <trkpt lat="36.927280" lon="-111.472300">
        <ele>1212.059</ele>
        <time>2018-12-29T08:56:02Z</time>
      </trkpt>
      <trkpt lat="36.926550" lon="-111.472220">
        <ele>1214.868</ele>
        <time>2018-12-29T08:56:22Z</time>
      </trkpt>
      <trkpt lat="36.925590" lon="-111.472110">
        <ele>1218.473</ele>
        <time>2018-12-29T08:56:42Z</time>
      </trkpt>
      <trkpt lat="36.925592" lon="-111.472112">
        <ele>1218.441</ele>
        <time>2018-12-29T08:57:02Z</time>
      </trkpt>
      <trkpt lat="36.925710" lon="-111.470370">
        <ele>1225.981</ele>
        <time>2018-12-29T08:57:22Z</time>
      </trkpt>
      <trkpt lat="36.925750" lon="-111.469950">
        <ele>1228.209</ele>
        <time>2018-12-29T08:57:42Z</time>
      </trkpt>
      <trkpt lat="36.925760" lon="-111.469600">
        <ele>1230.108</ele>
        <time>2018-12-29T08:58:02Z</time>
      </trkpt>
      <trkpt lat="36.925770" lon="-111.469300">
        <ele>1231.357</ele>
        <time>2018-12-29T08:58:22Z</time>
      </trkpt>
      <trkpt lat="36.925750" lon="-111.468850">
        <ele>1232.945</ele>
        <time>2018-12-29T08:58:42Z</time>
      </trkpt>
      <trkpt lat="36.925740" lon="-111.468660">
        <ele>1233.610</ele>
        <time>2018-12-29T08:59:02Z</time>
      </trkpt>
      <trkpt lat="36.925720" lon="-111.468400">
        <ele>1234.951</ele>
        <time>2018-12-29T08:59:22Z</time>
      </trkpt>
      <trkpt lat="36.925670" lon="-111.467740">
        <ele>1238.975</ele>
        <time>2018-12-29T08:59:42Z</time>
      </trkpt>
      <trkpt lat="36.925660" lon="-111.467600">
        <ele>1239.319</ele>
        <time>2018-12-29T09:00:02Z</time>
      </trkpt>
      <trkpt lat="36.925610" lon="-111.466730">
        <ele>1244.568</ele>
        <time>2018-12-29T09:00:22Z</time>
      </trkpt>
      <trkpt lat="36.925550" lon="-111.465790">
        <ele>1246.523</ele>
        <time>2018-12-29T09:00:42Z</time>
      </trkpt>
      <trkpt lat="36.925530" lon="-111.465490">
        <ele>1248.776</ele>
        <time>2018-12-29T09:01:02Z</time>
      </trkpt>
      <trkpt lat="36.925510" lon="-111.465330">
        <ele>1249.890</ele>
        <time>2018-12-29T09:01:22Z</time>
      </trkpt>
      <trkpt lat="36.925480" lon="-111.465210">
        <ele>1250.419</ele>
        <time>2018-12-29T09:01:42Z</time>
      </trkpt>
      <trkpt lat="36.925450" lon="-111.465090">
        <ele>1251.008</ele>
        <time>2018-12-29T09:02:02Z</time>
      </trkpt>
      <trkpt lat="36.925400" lon="-111.464980">
        <ele>1251.690</ele>
        <time>2018-12-29T09:02:22Z</time>
      </trkpt>
      <trkpt lat="36.925350" lon="-111.464870">
        <ele>1252.368</ele>
        <time>2018-12-29T09:02:42Z</time>
      </trkpt>
      <trkpt lat="36.925300" lon="-111.464770">
        <ele>1253.163</ele>
        <time>2018-12-29T09:03:02Z</time>
      </trkpt>
      <trkpt lat="36.925230" lon="-111.464680">
        <ele>1254.394</ele>
        <time>2018-12-29T09:03:22Z</time>
      </trkpt>
      <trkpt lat="36.925160" lon="-111.464570">
        <ele>1255.838</ele>
        <time>2018-12-29T09:03:42Z</time>
      </trkpt>
      <trkpt lat="36.925080" lon="-111.464490">
        <ele>1256.332</ele>
        <time>2018-12-29T09:04:02Z</time>
      </trkpt>
      <trkpt lat="36.924980" lon="-111.464390">
        <ele>1256.951</ele>
        <time>2018-12-29T09:04:22Z</time>
      </trkpt>
      <trkpt lat="36.924860" lon="-111.464300">
        <ele>1257.736</ele>
        <time>2018-12-29T09:04:42Z</time>
      </trkpt>
      <trkpt lat="36.924740" lon="-111.464230">
        <ele>1258.113</ele>
        <time>2018-12-29T09:05:02Z</time>
      </trkpt>
      <trkpt lat="36.924630" lon="-111.464180">
        <ele>1258.743</ele>
        <time>2018-12-29T09:05:22Z</time>
      </trkpt>
      <trkpt lat="36.924510" lon="-111.464140">
        <ele>1259.707</ele>
        <time>2018-12-29T09:05:42Z</time>
      </trkpt>
      <trkpt lat="36.924400" lon="-111.464120">
        <ele>1260.608</ele>
        <time>2018-12-29T09:06:02Z</time>
      </trkpt>
      <trkpt lat="36.924280" lon="-111.464110">
        <ele>1261.674</ele>
        <time>2018-12-29T09:06:22Z</time>
      </trkpt>
      <trkpt lat="36.924010" lon="-111.464110">
        <ele>1263.392</ele>
        <time>2018-12-29T09:06:42Z</time>
      </trkpt>
      <trkpt lat="36.923830" lon="-111.464120">
        <ele>1263.877</ele>
        <time>2018-12-29T09:07:02Z</time>
      </trkpt>
      <trkpt lat="36.923230" lon="-111.464140">
        <ele>1268.028</ele>
        <time>2018-12-29T09:07:22Z</time>
      </trkpt>
      <trkpt lat="36.922970" lon="-111.464140">
        <ele>1270.062</ele>
        <time>2018-12-29T09:07:42Z</time>
      </trkpt>
      <trkpt lat="36.922360" lon="-111.464120">
        <ele>1274.656</ele>
        <time>2018-12-29T09:08:02Z</time>
      </trkpt>
      <trkpt lat="36.921940" lon="-111.464130">
        <ele>1278.165</ele>
        <time>2018-12-29T09:08:22Z</time>
      </trkpt>
      <trkpt lat="36.921780" lon="-111.464140">
        <ele>1279.640</ele>
        <time>2018-12-29T09:08:42Z</time>
      </trkpt>
      <trkpt lat="36.921430" lon="-111.464150">
        <ele>1283.713</ele>
        <time>2018-12-29T09:09:02Z</time>
      </trkpt>
      <trkpt lat="36.921200" lon="-111.464150">
        <ele>1285.443</ele>
        <time>2018-12-29T09:09:22Z</time>
      </trkpt>
      <trkpt lat="36.921060" lon="-111.464140">
        <ele>1287.407</ele>
        <time>2018-12-29T09:09:42Z</time>
      </trkpt>
      <trkpt lat="36.920940" lon="-111.464120">
        <ele>1289.208</ele>
        <time>2018-12-29T09:10:02Z</time>
      </trkpt>
      <trkpt lat="36.920830" lon="-111.464080">
        <ele>1290.624</ele>
        <time>2018-12-29T09:10:22Z</time>
      </trkpt>
      <trkpt lat="36.920740" lon="-111.464030">
        <ele>1291.492</ele>
        <time>2018-12-29T09:10:42Z</time>
      </trkpt>
      <trkpt lat="36.920620" lon="-111.463940">
        <ele>1292.717</ele>
        <time>2018-12-29T09:11:02Z</time>
      </trkpt>
      <trkpt lat="36.920530" lon="-111.463860">
        <ele>1293.448</ele>
        <time>2018-12-29T09:11:22Z</time>
      </trkpt>
      <trkpt lat="36.920420" lon="-111.463740">
        <ele>1294.092</ele>
        <time>2018-12-29T09:11:42Z</time>
      </trkpt>
      <trkpt lat="36.920350" lon="-111.463650">
        <ele>1295.116</ele>
        <time>2018-12-29T09:12:02Z</time>
      </trkpt>
      <trkpt lat="36.920290" lon="-111.463550">
        <ele>1296.145</ele>
        <time>2018-12-29T09:12:22Z</time>
      </trkpt>
      <trkpt lat="36.920240" lon="-111.463460">
        <ele>1296.920</ele>
        <time>2018-12-29T09:12:42Z</time>
      </trkpt>
      <trkpt lat="36.920210" lon="-111.463390">
        <ele>1297.358</ele>
        <time>2018-12-29T09:13:02Z</time>
      </trkpt>
      <trkpt lat="36.920180" lon="-111.463310">
        <ele>1297.752</ele>
        <time>2018-12-29T09:13:22Z</time>
      </trkpt>
      <trkpt lat="36.920160" lon="-111.463230">
        <ele>1298.117</ele>
        <time>2018-12-29T09:13:42Z</time>
      </trkpt>
      <trkpt lat="36.920140" lon="-111.463180">
        <ele>1298.308</ele>
        <time>2018-12-29T09:14:02Z</time>
      </trkpt>
      <trkpt lat="36.920090" lon="-111.462970">
        <ele>1298.768</ele>
        <time>2018-12-29T09:14:22Z</time>
      </trkpt>
      <trkpt lat="36.920030" lon="-111.462670">
        <ele>1299.656</ele>
        <time>2018-12-29T09:14:42Z</time>
      </trkpt>
      <trkpt lat="36.919910" lon="-111.462100">
        <ele>1301.791</ele>
        <time>2018-12-29T09:15:02Z</time>
      </trkpt>
      <trkpt lat="36.919850" lon="-111.461750">
        <ele>1302.662</ele>
        <time>2018-12-29T09:15:22Z</time>
      </trkpt>
      <trkpt lat="36.919820" lon="-111.461620">
        <ele>1303.076</ele>
        <time>2018-12-29T09:15:42Z</time>
      </trkpt>
      <trkpt lat="36.919780" lon="-111.461480">
        <ele>1303.390</ele>
        <time>2018-12-29T09:16:02Z</time>
      </trkpt>
      <trkpt lat="36.919660" lon="-111.461150">
        <ele>1304.019</ele>
        <time>2018-12-29T09:16:22Z</time>
      </trkpt>
      <trkpt lat="36.919490" lon="-111.460750">
        <ele>1304.824</ele>
        <time>2018-12-29T09:16:42Z</time>
      </trkpt>
      <trkpt lat="36.919440" lon="-111.460640">
        <ele>1305.043</ele>
        <time>2018-12-29T09:17:02Z</time>
      </trkpt>
      <trkpt lat="36.919310" lon="-111.460420">
        <ele>1305.364</ele>
        <time>2018-12-29T09:17:22Z</time>
      </trkpt>
      <trkpt lat="36.919200" lon="-111.460270">
        <ele>1305.910</ele>
        <time>2018-12-29T09:17:42Z</time>
      </trkpt>
      <trkpt lat="36.919080" lon="-111.460100">
        <ele>1306.608</ele>
        <time>2018-12-29T09:18:02Z</time>
      </trkpt>
      <trkpt lat="36.918980" lon="-111.459980">
        <ele>1307.247</ele>
        <time>2018-12-29T09:18:22Z</time>
      </trkpt>
      <trkpt lat="36.918880" lon="-111.459850">
        <ele>1307.845</ele>
        <time>2018-12-29T09:18:42Z</time>
      </trkpt>
      <trkpt lat="36.918390" lon="-111.459270">
        <ele>1310.590</ele>
        <time>2018-12-29T09:19:02Z</time>
      </trkpt>
      <trkpt lat="36.917940" lon="-111.458740">
        <ele>1311.891</ele>
        <time>2018-12-29T09:19:22Z</time>
      </trkpt>
      <trkpt lat="36.917520" lon="-111.458300">
        <ele>1313.975</ele>
        <time>2018-12-29T09:19:42Z</time>
      </trkpt>
      <trkpt lat="36.917180" lon="-111.457920">
        <ele>1315.539</ele>
        <time>2018-12-29T09:20:02Z</time>
      </trkpt>
      <trkpt lat="36.916530" lon="-111.457260">
        <ele>1317.998</ele>
        <time>2018-12-29T09:20:22Z</time>
      </trkpt>
      <trkpt lat="36.915990" lon="-111.456750">
        <ele>1320.883</ele>
        <time>2018-12-29T09:20:42Z</time>
      </trkpt>
      <trkpt lat="36.914850" lon="-111.455690">
        <ele>1325.576</ele>
        <time>2018-12-29T09:21:02Z</time>
      </trkpt>
      <trkpt lat="36.914849" lon="-111.455687">
        <ele>1325.590</ele>
        <time>2018-12-29T09:21:22Z</time>
      </trkpt>
      <trkpt lat="36.914740" lon="-111.455850">
        <ele>1325.719</ele>
        <time>2018-12-29T09:21:42Z</time>
      </trkpt>
      <trkpt lat="36.914742" lon="-111.455853">
        <ele>1325.708</ele>
        <time>2018-12-29T09:22:02Z</time>
      </trkpt>
      <trkpt lat="36.914742" lon="-111.455853">
        <ele>1325.756</ele>
        <time>2018-12-27T18:54:25Z</time>
      </trkpt>
      <trkpt lat="36.914850" lon="-111.455690">
        <ele>1325.559</ele>
        <time>2018-12-27T18:54:45Z</time>
      </trkpt>
      <trkpt lat="36.914849" lon="-111.455687">
        <ele>1325.514</ele>
        <time>2018-12-27T18:55:05Z</time>
      </trkpt>
      <trkpt lat="36.914730" lon="-111.455580">
        <ele>1325.708</ele>
        <time>2018-12-27T18:55:25Z</time>
      </trkpt>
      <trkpt lat="36.914660" lon="-111.455510">
        <ele>1325.958</ele>
        <time>2018-12-27T18:55:45Z</time>
      </trkpt>
      <trkpt lat="36.914610" lon="-111.455450">
        <ele>1326.036</ele>
        <time>2018-12-27T18:56:05Z</time>
      </trkpt>
      <trkpt lat="36.914550" lon="-111.455370">
        <ele>1326.111</ele>
        <time>2018-12-27T18:56:25Z</time>
      </trkpt>
      <trkpt lat="36.914480" lon="-111.455250">
        <ele>1326.372</ele>
        <time>2018-12-27T18:56:45Z</time>
      </trkpt>
      <trkpt lat="36.914420" lon="-111.455130">
        <ele>1326.456</ele>
        <time>2018-12-27T18:57:05Z</time>
      </trkpt>
      <trkpt lat="36.914370" lon="-111.454980">
        <ele>1326.563</ele>
        <time>2018-12-27T18:57:25Z</time>
      </trkpt>
      <trkpt lat="36.914330" lon="-111.454820">
        <ele>1326.638</ele>
        <time>2018-12-27T18:57:45Z</time>
      </trkpt>
      <trkpt lat="36.914290" lon="-111.454590">
        <ele>1326.787</ele>
        <time>2018-12-27T18:58:05Z</time>
      </trkpt>
      <trkpt lat="36.914260" lon="-111.454410">
        <ele>1326.961</ele>
        <time>2018-12-27T18:58:25Z</time>
      </trkpt>
      <trkpt lat="36.914240" lon="-111.454220">
        <ele>1327.121</ele>
        <time>2018-12-27T18:58:45Z</time>
      </trkpt>
      <trkpt lat="36.914200" lon="-111.453900">
        <ele>1327.213</ele>
        <time>2018-12-27T18:59:05Z</time>
      </trkpt>
      <trkpt lat="36.914180" lon="-111.453710">
        <ele>1327.408</ele>
        <time>2018-12-27T18:59:25Z</time>
      </trkpt>
      <trkpt lat="36.914150" lon="-111.453460">
        <ele>1327.699</ele>
        <time>2018-12-27T18:59:45Z</time>
      </trkpt>
      <trkpt lat="36.914120" lon="-111.453300">
        <ele>1327.747</ele>
        <time>2018-12-27T19:00:05Z</time>
      </trkpt>
      <trkpt lat="36.914090" lon="-111.453170">
        <ele>1327.992</ele>
        <time>2018-12-27T19:00:25Z</time>
      </trkpt>
      <trkpt lat="36.914050" lon="-111.453090">
        <ele>1328.033</ele>
        <time>2018-12-27T19:00:45Z</time>
      </trkpt>
      <trkpt lat="36.914010" lon="-111.453010">
        <ele>1328.297</ele>
        <time>2018-12-27T19:01:05Z</time>
      </trkpt>
      <trkpt lat="36.913960" lon="-111.452930">
        <ele>1328.444</ele>
        <time>2018-12-27T19:01:25Z</time>
      </trkpt>
      <trkpt lat="36.913920" lon="-111.452860">
        <ele>1328.579</ele>
        <time>2018-12-27T19:01:45Z</time>
      </trkpt>
      <trkpt lat="36.913870" lon="-111.452790">
        <ele>1328.658</ele>
        <time>2018-12-27T19:02:05Z</time>
      </trkpt>
      <trkpt lat="36.913820" lon="-111.452730">
        <ele>1328.792</ele>
        <time>2018-12-27T19:02:25Z</time>
      </trkpt>
      <trkpt lat="36.913760" lon="-111.452680">
        <ele>1328.873</ele>
        <time>2018-12-27T19:02:45Z</time>
      </trkpt>
      <trkpt lat="36.913700" lon="-111.452640">
        <ele>1329.020</ele>
        <time>2018-12-27T19:03:05Z</time>
      </trkpt>
      <trkpt lat="36.913660" lon="-111.452620">
        <ele>1329.008</ele>
        <time>2018-12-27T19:03:25Z</time>
      </trkpt>
      <trkpt lat="36.913630" lon="-111.452600">
        <ele>1329.192</ele>
        <time>2018-12-27T19:03:45Z</time>
      </trkpt>
      <trkpt lat="36.913570" lon="-111.452570">
        <ele>1329.280</ele>
        <time>2018-12-27T19:04:05Z</time>
      </trkpt>
      <trkpt lat="36.913490" lon="-111.452550">
        <ele>1329.475</ele>
        <time>2018-12-27T19:04:25Z</time>
      </trkpt>
      <trkpt lat="36.913410" lon="-111.452530">
        <ele>1329.566</ele>
        <time>2018-12-27T19:04:45Z</time>
      </trkpt>
      <trkpt lat="36.913290" lon="-111.452530">
        <ele>1329.640</ele>
        <time>2018-12-27T19:05:05Z</time>
      </trkpt>
      <trkpt lat="36.913210" lon="-111.452530">
        <ele>1329.787</ele>
        <time>2018-12-27T19:05:25Z</time>
      </trkpt>
      <trkpt lat="36.913150" lon="-111.452530">
        <ele>1329.732</ele>
        <time>2018-12-27T19:05:45Z</time>
      </trkpt>
      <trkpt lat="36.913090" lon="-111.452550">
        <ele>1329.711</ele>
        <time>2018-12-27T19:06:05Z</time>
      </trkpt>
      <trkpt lat="36.913040" lon="-111.452560">
        <ele>1329.713</ele>
        <time>2018-12-27T19:06:25Z</time>
      </trkpt>
      <trkpt lat="36.913000" lon="-111.452580">
        <ele>1329.743</ele>
        <time>2018-12-27T19:06:45Z</time>
      </trkpt>
      <trkpt lat="36.912950" lon="-111.452610">
        <ele>1329.707</ele>
        <time>2018-12-27T19:07:05Z</time>
      </trkpt>
      <trkpt lat="36.912890" lon="-111.452650">
        <ele>1329.708</ele>
        <time>2018-12-27T19:07:25Z</time>
      </trkpt>
      <trkpt lat="36.912750" lon="-111.452760">
        <ele>1329.974</ele>
        <time>2018-12-27T19:07:45Z</time>
      </trkpt>
      <trkpt lat="36.912590" lon="-111.452920">
        <ele>1330.142</ele>
        <time>2018-12-27T19:08:05Z</time>
      </trkpt>
      <trkpt lat="36.912430" lon="-111.453120">
        <ele>1330.637</ele>
        <time>2018-12-27T19:08:25Z</time>
      </trkpt>
      <trkpt lat="36.912280" lon="-111.453290">
        <ele>1330.838</ele>
        <time>2018-12-27T19:08:45Z</time>
      </trkpt>
      <trkpt lat="36.912120" lon="-111.453520">
        <ele>1331.042</ele>
        <time>2018-12-27T19:09:05Z</time>
      </trkpt>
      <trkpt lat="36.911930" lon="-111.453790">
        <ele>1331.129</ele>
        <time>2018-12-27T19:09:25Z</time>
      </trkpt>
      <trkpt lat="36.911800" lon="-111.454020">
        <ele>1331.244</ele>
        <time>2018-12-27T19:09:45Z</time>
      </trkpt>
      <trkpt lat="36.911680" lon="-111.454230">
        <ele>1331.583</ele>
        <time>2018-12-27T19:10:05Z</time>
      </trkpt>
      <trkpt lat="36.911530" lon="-111.454520">
        <ele>1331.751</ele>
        <time>2018-12-27T19:10:25Z</time>
      </trkpt>
      <trkpt lat="36.911380" lon="-111.454810">
        <ele>1331.901</ele>
        <time>2018-12-27T19:10:45Z</time>
      </trkpt>
      <trkpt lat="36.911270" lon="-111.455090">
        <ele>1332.011</ele>
        <time>2018-12-27T19:11:05Z</time>
      </trkpt>
      <trkpt lat="36.911190" lon="-111.455330">
        <ele>1331.908</ele>
        <time>2018-12-27T19:11:25Z</time>
      </trkpt>
      <trkpt lat="36.911100" lon="-111.455600">
        <ele>1331.968</ele>
        <time>2018-12-27T19:11:45Z</time>
      </trkpt>
      <trkpt lat="36.911010" lon="-111.455900">
        <ele>1331.816</ele>
        <time>2018-12-27T19:12:05Z</time>
      </trkpt>
      <trkpt lat="36.910940" lon="-111.456170">
        <ele>1331.761</ele>
        <time>2018-12-27T19:12:25Z</time>
      </trkpt>
      <trkpt lat="36.910941" lon="-111.456169">
        <ele>1331.792</ele>
        <time>2018-12-27T19:12:45Z</time>
      </trkpt>
      <trkpt lat="36.910400" lon="-111.455920">
        <ele>1331.376</ele>
        <time>2018-12-27T19:13:05Z</time>
      </trkpt>
      <trkpt lat="36.909970" lon="-111.455760">
        <ele>1330.133</ele>
        <time>2018-12-27T19:13:25Z</time>
      </trkpt>
      <trkpt lat="36.909780" lon="-111.455700">
        <ele>1330.058</ele>
        <time>2018-12-27T19:13:45Z</time>
      </trkpt>
      <trkpt lat="36.909720" lon="-111.455670">
        <ele>1330.167</ele>
        <time>2018-12-27T19:14:05Z</time>
      </trkpt>
      <trkpt lat="36.909620" lon="-111.455640">
        <ele>1330.337</ele>
        <time>2018-12-27T19:14:25Z</time>
      </trkpt>
      <trkpt lat="36.909250" lon="-111.455540">
        <ele>1330.649</ele>
        <time>2018-12-27T19:14:45Z</time>
      </trkpt>
      <trkpt lat="36.909050" lon="-111.455470">
        <ele>1330.613</ele>
        <time>2018-12-27T19:15:05Z</time>
      </trkpt>
      <trkpt lat="36.908700" lon="-111.455390">
        <ele>1330.708</ele>
        <time>2018-12-27T19:15:25Z</time>
      </trkpt>
      <trkpt lat="36.908440" lon="-111.455340">
        <ele>1330.886</ele>
        <time>2018-12-27T19:15:45Z</time>
      </trkpt>
      <trkpt lat="36.908080" lon="-111.455260">
        <ele>1331.164</ele>
        <time>2018-12-27T19:16:05Z</time>
      </trkpt>
      <trkpt lat="36.907500" lon="-111.455140">
        <ele>1331.549</ele>
        <time>2018-12-27T19:16:25Z</time>
      </trkpt>
      <trkpt lat="36.906920" lon="-111.455040">
        <ele>1330.770</ele>
        <time>2018-12-27T19:16:45Z</time>
      </trkpt>
      <trkpt lat="36.906050" lon="-111.454890">
        <ele>1325.624</ele>
        <time>2018-12-27T19:17:05Z</time>
      </trkpt>
      <trkpt lat="36.905310" lon="-111.454750">
        <ele>1320.661</ele>
        <time>2018-12-27T19:17:25Z</time>
      </trkpt>
      <trkpt lat="36.904710" lon="-111.454650">
        <ele>1317.586</ele>
        <time>2018-12-27T19:17:45Z</time>
      </trkpt>
      <trkpt lat="36.903910" lon="-111.454490">
        <ele>1311.855</ele>
        <time>2018-12-27T19:18:05Z</time>
      </trkpt>
      <trkpt lat="36.903220" lon="-111.454350">
        <ele>1305.917</ele>
        <time>2018-12-27T19:18:25Z</time>
      </trkpt>
      <trkpt lat="36.902820" lon="-111.454260">
        <ele>1304.987</ele>
        <time>2018-12-27T19:18:45Z</time>
      </trkpt>
      <trkpt lat="36.902610" lon="-111.454210">
        <ele>1303.615</ele>
        <time>2018-12-27T19:19:05Z</time>
      </trkpt>
      <trkpt lat="36.902280" lon="-111.454100">
        <ele>1302.108</ele>
        <time>2018-12-27T19:19:25Z</time>
      </trkpt>
      <trkpt lat="36.901800" lon="-111.453920">
        <ele>1300.834</ele>
        <time>2018-12-27T19:19:45Z</time>
      </trkpt>
      <trkpt lat="36.901580" lon="-111.453830">
        <ele>1300.422</ele>
        <time>2018-12-27T19:20:05Z</time>
      </trkpt>
      <trkpt lat="36.901150" lon="-111.453630">
        <ele>1299.767</ele>
        <time>2018-12-27T19:20:25Z</time>
      </trkpt>
      <trkpt lat="36.900990" lon="-111.453550">
        <ele>1299.598</ele>
        <time>2018-12-27T19:20:45Z</time>
      </trkpt>
      <trkpt lat="36.900670" lon="-111.453360">
        <ele>1298.992</ele>
        <time>2018-12-27T19:21:05Z</time>
      </trkpt>
      <trkpt lat="36.900180" lon="-111.453060">
        <ele>1298.629</ele>
        <time>2018-12-27T19:21:25Z</time>
      </trkpt>
      <trkpt lat="36.899730" lon="-111.452730">
        <ele>1298.794</ele>
        <time>2018-12-27T19:21:45Z</time>
      </trkpt>
      <trkpt lat="36.899420" lon="-111.452460">
        <ele>1299.173</ele>
        <time>2018-12-27T19:22:05Z</time>
      </trkpt>
      <trkpt lat="36.899190" lon="-111.452240">
        <ele>1299.534</ele>
        <time>2018-12-27T19:22:25Z</time>
      </trkpt>
      <trkpt lat="36.898970" lon="-111.451970">
        <ele>1300.055</ele>
        <time>2018-12-27T19:22:45Z</time>
      </trkpt>
      <trkpt lat="36.898880" lon="-111.451850">
        <ele>1300.110</ele>
        <time>2018-12-27T19:23:05Z</time>
      </trkpt>
      <trkpt lat="36.898700" lon="-111.451570">
        <ele>1301.008</ele>
        <time>2018-12-27T19:23:25Z</time>
      </trkpt>
      <trkpt lat="36.898450" lon="-111.451080">
        <ele>1303.436</ele>
        <time>2018-12-27T19:23:45Z</time>
      </trkpt>
      <trkpt lat="36.898310" lon="-111.450760">
        <ele>1304.844</ele>
        <time>2018-12-27T19:24:05Z</time>
      </trkpt>
      <trkpt lat="36.898250" lon="-111.450530">
        <ele>1305.369</ele>
        <time>2018-12-27T19:24:25Z</time>
      </trkpt>
      <trkpt lat="36.898220" lon="-111.450410">
        <ele>1305.580</ele>
        <time>2018-12-27T19:24:45Z</time>
      </trkpt>
      <trkpt lat="36.898170" lon="-111.450200">
        <ele>1305.544</ele>
        <time>2018-12-27T19:25:05Z</time>
      </trkpt>
      <trkpt lat="36.898140" lon="-111.450000">
        <ele>1305.531</ele>
        <time>2018-12-27T19:25:25Z</time>
      </trkpt>
      <trkpt lat="36.898100" lon="-111.449570">
        <ele>1305.546</ele>
        <time>2018-12-27T19:25:45Z</time>
      </trkpt>
      <trkpt lat="36.898080" lon="-111.449330">
        <ele>1305.185</ele>
        <time>2018-12-27T19:26:05Z</time>
      </trkpt>
      <trkpt lat="36.898060" lon="-111.449070">
        <ele>1304.569</ele>
        <time>2018-12-27T19:26:25Z</time>
      </trkpt>
      <trkpt lat="36.898000" lon="-111.448620">
        <ele>1303.804</ele>
        <time>2018-12-27T19:26:45Z</time>
      </trkpt>
      <trkpt lat="36.897950" lon="-111.448280">
        <ele>1303.624</ele>
        <time>2018-12-27T19:27:05Z</time>
      </trkpt>
      <trkpt lat="36.897910" lon="-111.448140">
        <ele>1303.508</ele>
        <time>2018-12-27T19:27:25Z</time>
      </trkpt>
      <trkpt lat="36.897870" lon="-111.447950">
        <ele>1303.449</ele>
        <time>2018-12-27T19:27:45Z</time>
      </trkpt>
      <trkpt lat="36.897780" lon="-111.447650">
        <ele>1303.557</ele>
        <time>2018-12-27T19:28:05Z</time>
      </trkpt>
      <trkpt lat="36.897670" lon="-111.447380">
        <ele>1303.742</ele>
        <time>2018-12-27T19:28:25Z</time>
      </trkpt>
      <trkpt lat="36.897530" lon="-111.447080">
        <ele>1304.013</ele>
        <time>2018-12-27T19:28:45Z</time>
      </trkpt>
      <trkpt lat="36.897370" lon="-111.446810">
        <ele>1304.647</ele>
        <time>2018-12-27T19:29:05Z</time>
      </trkpt>
      <trkpt lat="36.897250" lon="-111.446640">
        <ele>1305.014</ele>
        <time>2018-12-27T19:29:25Z</time>
      </trkpt>
      <trkpt lat="36.897140" lon="-111.446480">
        <ele>1305.469</ele>
        <time>2018-12-27T19:29:45Z</time>
      </trkpt>
      <trkpt lat="36.897040" lon="-111.446360">
        <ele>1305.738</ele>
        <time>2018-12-27T19:30:05Z</time>
      </trkpt>
      <trkpt lat="36.896960" lon="-111.446280">
        <ele>1305.949</ele>
        <time>2018-12-27T19:30:25Z</time>
      </trkpt>
      <trkpt lat="36.896790" lon="-111.446100">
        <ele>1306.402</ele>
        <time>2018-12-27T19:30:45Z</time>
      </trkpt>
      <trkpt lat="36.896620" lon="-111.445960">
        <ele>1306.622</ele>
        <time>2018-12-27T19:31:05Z</time>
      </trkpt>
      <trkpt lat="36.896480" lon="-111.445850">
        <ele>1306.908</ele>
        <time>2018-12-27T19:31:25Z</time>
      </trkpt>
      <trkpt lat="36.896420" lon="-111.445810">
        <ele>1307.097</ele>
        <time>2018-12-27T19:31:45Z</time>
      </trkpt>
      <trkpt lat="36.896170" lon="-111.445660">
        <ele>1307.455</ele>
        <time>2018-12-27T19:32:05Z</time>
      </trkpt>
      <trkpt lat="36.895510" lon="-111.445330">
        <ele>1308.180</ele>
        <time>2018-12-27T19:32:25Z</time>
      </trkpt>
      <trkpt lat="36.895020" lon="-111.445060">
        <ele>1308.551</ele>
        <time>2018-12-27T19:32:45Z</time>
      </trkpt>
      <trkpt lat="36.895021" lon="-111.445061">
        <ele>1308.525</ele>
        <time>2018-12-27T19:33:05Z</time>
      </trkpt>
      <trkpt lat="36.895100" lon="-111.444010">
        <ele>1308.522</ele>
        <time>2018-12-27T19:33:25Z</time>
      </trkpt>
      <trkpt lat="36.895150" lon="-111.443410">
        <ele>1308.137</ele>
        <time>2018-12-27T19:33:45Z</time>
      </trkpt>
      <trkpt lat="36.895200" lon="-111.442910">
        <ele>1307.336</ele>
        <time>2018-12-27T19:34:05Z</time>
      </trkpt>
      <trkpt lat="36.895370" lon="-111.441130">
        <ele>1303.045</ele>
        <time>2018-12-27T19:34:25Z</time>
      </trkpt>
      <trkpt lat="36.895420" lon="-111.440740">
        <ele>1301.447</ele>
        <time>2018-12-27T19:34:45Z</time>
      </trkpt>
      <trkpt lat="36.895450" lon="-111.440510">
        <ele>1300.511</ele>
        <time>2018-12-27T19:35:05Z</time>
      </trkpt>
      <trkpt lat="36.895510" lon="-111.440170">
        <ele>1299.508</ele>
        <time>2018-12-27T19:35:25Z</time>
      </trkpt>
      <trkpt lat="36.895560" lon="-111.439890">
        <ele>1299.227</ele>
        <time>2018-12-27T19:35:45Z</time>
      </trkpt>
      <trkpt lat="36.895800" lon="-111.438890">
        <ele>1298.045</ele>
        <time>2018-12-27T19:36:05Z</time>
      </trkpt>
      <trkpt lat="36.896340" lon="-111.436750">
        <ele>1300.550</ele>
        <time>2018-12-27T19:36:25Z</time>
      </trkpt>
      <trkpt lat="36.899290" lon="-111.425190">
        <ele>1279.551</ele>
        <time>2018-12-27T19:36:45Z</time>
      </trkpt>
      <trkpt lat="36.899790" lon="-111.423260">
        <ele>1269.955</ele>
        <time>2018-12-27T19:37:05Z</time>
      </trkpt>
      <trkpt lat="36.899890" lon="-111.422720">
        <ele>1266.492</ele>
        <time>2018-12-27T19:37:25Z</time>
      </trkpt>
      <trkpt lat="36.899950" lon="-111.422360">
        <ele>1264.787</ele>
        <time>2018-12-27T19:37:45Z</time>
      </trkpt>
      <trkpt lat="36.899980" lon="-111.422050">
        <ele>1265.666</ele>
        <time>2018-12-27T19:38:05Z</time>
      </trkpt>
      <trkpt lat="36.899990" lon="-111.421770">
        <ele>1266.883</ele>
        <time>2018-12-27T19:38:25Z</time>
      </trkpt>
      <trkpt lat="36.900000" lon="-111.421370">
        <ele>1268.425</ele>
        <time>2018-12-27T19:38:45Z</time>
      </trkpt>
      <trkpt lat="36.899980" lon="-111.420890">
        <ele>1268.617</ele>
        <time>2018-12-27T19:39:05Z</time>
      </trkpt>
      <trkpt lat="36.899950" lon="-111.420480">
        <ele>1268.608</ele>
        <time>2018-12-27T19:39:25Z</time>
      </trkpt>
      <trkpt lat="36.899890" lon="-111.419980">
        <ele>1267.041</ele>
        <time>2018-12-27T19:39:45Z</time>
      </trkpt>
      <trkpt lat="36.899760" lon="-111.419240">
        <ele>1264.839</ele>
        <time>2018-12-27T19:40:05Z</time>
      </trkpt>
      <trkpt lat="36.899580" lon="-111.418210">
        <ele>1263.284</ele>
        <time>2018-12-27T19:40:25Z</time>
      </trkpt>
      <trkpt lat="36.899460" lon="-111.417540">
        <ele>1262.415</ele>
        <time>2018-12-27T19:40:45Z</time>
      </trkpt>
      <trkpt lat="36.899310" lon="-111.416660">
        <ele>1257.939</ele>
        <time>2018-12-27T19:41:05Z</time>
      </trkpt>
      <trkpt lat="36.899070" lon="-111.415260">
        <ele>1261.846</ele>
        <time>2018-12-27T19:41:25Z</time>
      </trkpt>
      <trkpt lat="36.898180" lon="-111.410100">
        <ele>1263.141</ele>
        <time>2018-12-27T19:41:45Z</time>
      </trkpt>
      <trkpt lat="36.897950" lon="-111.408830">
        <ele>1263.690</ele>
        <time>2018-12-27T19:42:05Z</time>
      </trkpt>
      <trkpt lat="36.897800" lon="-111.407990">
        <ele>1266.838</ele>
        <time>2018-12-27T19:42:25Z</time>
      </trkpt>
      <trkpt lat="36.897690" lon="-111.407320">
        <ele>1269.670</ele>
        <time>2018-12-27T19:42:45Z</time>
      </trkpt>
      <trkpt lat="36.897600" lon="-111.406840">
        <ele>1271.717</ele>
        <time>2018-12-27T19:43:05Z</time>
      </trkpt>
      <trkpt lat="36.897500" lon="-111.406260">
        <ele>1274.708</ele>
        <time>2018-12-27T19:43:25Z</time>
      </trkpt>
      <trkpt lat="36.897060" lon="-111.403660">
        <ele>1282.156</ele>
        <time>2018-12-27T19:43:45Z</time>
      </trkpt>
      <trkpt lat="36.896890" lon="-111.402680">
        <ele>1285.244</ele>
        <time>2018-12-27T19:44:05Z</time>
      </trkpt>
      <trkpt lat="36.896620" lon="-111.401020">
        <ele>1288.789</ele>
        <time>2018-12-27T19:44:25Z</time>
      </trkpt>
      <trkpt lat="36.896430" lon="-111.399920">
        <ele>1291.850</ele>
        <time>2018-12-27T19:44:45Z</time>
      </trkpt>
      <trkpt lat="36.896230" lon="-111.398720">
        <ele>1297.054</ele>
        <time>2018-12-27T19:45:05Z</time>
      </trkpt>
      <trkpt lat="36.896100" lon="-111.398010">
        <ele>1299.891</ele>
        <time>2018-12-27T19:45:25Z</time>
      </trkpt>
      <trkpt lat="36.895940" lon="-111.397070">
        <ele>1301.866</ele>
        <time>2018-12-27T19:45:45Z</time>
      </trkpt>
      <trkpt lat="36.895820" lon="-111.396390">
        <ele>1303.145</ele>
        <time>2018-12-27T19:46:05Z</time>
      </trkpt>
      <trkpt lat="36.895660" lon="-111.395500">
        <ele>1304.834</ele>
        <time>2018-12-27T19:46:25Z</time>
      </trkpt>
      <trkpt lat="36.895600" lon="-111.395190">
        <ele>1305.755</ele>
        <time>2018-12-27T19:46:45Z</time>
      </trkpt>
      <trkpt lat="36.895270" lon="-111.393410">
        <ele>1311.110</ele>
        <time>2018-12-27T19:47:05Z</time>
      </trkpt>
      <trkpt lat="36.894740" lon="-111.390300">
        <ele>1323.408</ele>
        <time>2018-12-27T19:47:25Z</time>
      </trkpt>
      <trkpt lat="36.894520" lon="-111.389040">
        <ele>1329.656</ele>
        <time>2018-12-27T19:47:45Z</time>
      </trkpt>
      <trkpt lat="36.894330" lon="-111.387860">
        <ele>1336.674</ele>
        <time>2018-12-27T19:48:05Z</time>
      </trkpt>
      <trkpt lat="36.894180" lon="-111.386950">
        <ele>1343.059</ele>
        <time>2018-12-27T19:48:25Z</time>
      </trkpt>
      <trkpt lat="36.894030" lon="-111.386050">
        <ele>1347.860</ele>
        <time>2018-12-27T19:48:45Z</time>
      </trkpt>
      <trkpt lat="36.893910" lon="-111.385380">
        <ele>1352.534</ele>
        <time>2018-12-27T19:49:05Z</time>
      </trkpt>
      <trkpt lat="36.893900" lon="-111.385280">
        <ele>1352.791</ele>
        <time>2018-12-27T19:49:25Z</time>
      </trkpt>
      <trkpt lat="36.893760" lon="-111.384480">
        <ele>1354.736</ele>
        <time>2018-12-27T19:49:45Z</time>
      </trkpt>
      <trkpt lat="36.893580" lon="-111.383510">
        <ele>1359.685</ele>
        <time>2018-12-27T19:50:05Z</time>
      </trkpt>
      <trkpt lat="36.893440" lon="-111.382690">
        <ele>1360.775</ele>
        <time>2018-12-27T19:50:25Z</time>
      </trkpt>
      <trkpt lat="36.893350" lon="-111.382150">
        <ele>1362.128</ele>
        <time>2018-12-27T19:50:45Z</time>
      </trkpt>
      <trkpt lat="36.893120" lon="-111.380960">
        <ele>1366.420</ele>
        <time>2018-12-27T19:51:05Z</time>
      </trkpt>
      <trkpt lat="36.892990" lon="-111.380210">
        <ele>1368.008</ele>
        <time>2018-12-27T19:51:25Z</time>
      </trkpt>
      <trkpt lat="36.892850" lon="-111.379460">
        <ele>1371.510</ele>
        <time>2018-12-27T19:51:45Z</time>
      </trkpt>
      <trkpt lat="36.892680" lon="-111.378410">
        <ele>1372.748</ele>
        <time>2018-12-27T19:52:05Z</time>
      </trkpt>
      <trkpt lat="36.892570" lon="-111.377810">
        <ele>1372.923</ele>
        <time>2018-12-27T19:52:25Z</time>
      </trkpt>
      <trkpt lat="36.892410" lon="-111.376860">
        <ele>1373.754</ele>
        <time>2018-12-27T19:52:45Z</time>
      </trkpt>
      <trkpt lat="36.892200" lon="-111.375730">
        <ele>1377.128</ele>
        <time>2018-12-27T19:53:05Z</time>
      </trkpt>
      <trkpt lat="36.892000" lon="-111.374480">
        <ele>1380.515</ele>
        <time>2018-12-27T19:53:25Z</time>
      </trkpt>
      <trkpt lat="36.891800" lon="-111.373440">
        <ele>1383.750</ele>
        <time>2018-12-27T19:53:45Z</time>
      </trkpt>
      <trkpt lat="36.891670" lon="-111.372840">
        <ele>1386.369</ele>
        <time>2018-12-27T19:54:05Z</time>
      </trkpt>
      <trkpt lat="36.891500" lon="-111.372210">
        <ele>1390.096</ele>
        <time>2018-12-27T19:54:25Z</time>
      </trkpt>
      <trkpt lat="36.891390" lon="-111.371850">
        <ele>1390.631</ele>
        <time>2018-12-27T19:54:45Z</time>
      </trkpt>
      <trkpt lat="36.891200" lon="-111.371260">
        <ele>1390.824</ele>
        <time>2018-12-27T19:55:05Z</time>
      </trkpt>
      <trkpt lat="36.890890" lon="-111.370480">
        <ele>1390.908</ele>
        <time>2018-12-27T19:55:25Z</time>
      </trkpt>
      <trkpt lat="36.890590" lon="-111.369810">
        <ele>1390.962</ele>
        <time>2018-12-27T19:55:45Z</time>
      </trkpt>
      <trkpt lat="36.889080" lon="-111.366590">
        <ele>1393.120</ele>
        <time>2018-12-27T19:56:05Z</time>
      </trkpt>
      <trkpt lat="36.888980" lon="-111.366380">
        <ele>1393.625</ele>
        <time>2018-12-27T19:56:25Z</time>
      </trkpt>
      <trkpt lat="36.884890" lon="-111.357690">
        <ele>1415.356</ele>
        <time>2018-12-27T19:56:45Z</time>
      </trkpt>
      <trkpt lat="36.881450" lon="-111.350420">
        <ele>1427.630</ele>
        <time>2018-12-27T19:57:05Z</time>
      </trkpt>
      <trkpt lat="36.881210" lon="-111.349890">
        <ele>1427.037</ele>
        <time>2018-12-27T19:57:25Z</time>
      </trkpt>
      <trkpt lat="36.880960" lon="-111.349370">
        <ele>1427.332</ele>
        <time>2018-12-27T19:57:45Z</time>
      </trkpt>
      <trkpt lat="36.879740" lon="-111.346760">
        <ele>1430.821</ele>
        <time>2018-12-27T19:58:05Z</time>
      </trkpt>
      <trkpt lat="36.879470" lon="-111.346230">
        <ele>1431.736</ele>
        <time>2018-12-27T19:58:25Z</time>
      </trkpt>
      <trkpt lat="36.879220" lon="-111.345780">
        <ele>1432.517</ele>
        <time>2018-12-27T19:58:45Z</time>
      </trkpt>
      <trkpt lat="36.878760" lon="-111.345150">
        <ele>1433.818</ele>
        <time>2018-12-27T19:59:05Z</time>
      </trkpt>
      <trkpt lat="36.878550" lon="-111.344920">
        <ele>1434.208</ele>
        <time>2018-12-27T19:59:25Z</time>
      </trkpt>
      <trkpt lat="36.878380" lon="-111.344740">
        <ele>1434.626</ele>
        <time>2018-12-27T19:59:45Z</time>
      </trkpt>
      <trkpt lat="36.878080" lon="-111.344470">
        <ele>1435.284</ele>
        <time>2018-12-27T20:00:05Z</time>
      </trkpt>
      <trkpt lat="36.877860" lon="-111.344280">
        <ele>1435.649</ele>
        <time>2018-12-27T20:00:25Z</time>
      </trkpt>
      <trkpt lat="36.877620" lon="-111.344110">
        <ele>1435.990</ele>
        <time>2018-12-27T20:00:45Z</time>
      </trkpt>
      <trkpt lat="36.877490" lon="-111.344030">
        <ele>1436.174</ele>
        <time>2018-12-27T20:01:05Z</time>
      </trkpt>
      <trkpt lat="36.877340" lon="-111.343940">
        <ele>1436.351</ele>
        <time>2018-12-27T20:01:25Z</time>
      </trkpt>
      <trkpt lat="36.877100" lon="-111.343800">
        <ele>1436.916</ele>
        <time>2018-12-27T20:01:45Z</time>
      </trkpt>
      <trkpt lat="36.877050" lon="-111.343770">
        <ele>1437.045</ele>
        <time>2018-12-27T20:02:05Z</time>
      </trkpt>
      <trkpt lat="36.876720" lon="-111.343630">
        <ele>1437.767</ele>
        <time>2018-12-27T20:02:25Z</time>
      </trkpt>
      <trkpt lat="36.876660" lon="-111.343600">
        <ele>1437.981</ele>
        <time>2018-12-27T20:02:45Z</time>
      </trkpt>
      <trkpt lat="36.876610" lon="-111.343580">
        <ele>1438.019</ele>
        <time>2018-12-27T20:03:05Z</time>
      </trkpt>
      <trkpt lat="36.875610" lon="-111.343240">
        <ele>1439.708</ele>
        <time>2018-12-27T20:03:25Z</time>
      </trkpt>
      <trkpt lat="36.872260" lon="-111.342150">
        <ele>1445.619</ele>
        <time>2018-12-27T20:03:45Z</time>
      </trkpt>
      <trkpt lat="36.869820" lon="-111.341340">
        <ele>1460.767</ele>
        <time>2018-12-27T20:04:05Z</time>
      </trkpt>
      <trkpt lat="36.868500" lon="-111.340890">
        <ele>1467.092</ele>
        <time>2018-12-27T20:04:25Z</time>
      </trkpt>
      <trkpt lat="36.867260" lon="-111.340480">
        <ele>1472.213</ele>
        <time>2018-12-27T20:04:45Z</time>
      </trkpt>
      <trkpt lat="36.865180" lon="-111.339800">
        <ele>1482.767</ele>
        <time>2018-12-27T20:05:05Z</time>
      </trkpt>
      <trkpt lat="36.862510" lon="-111.338930">
        <ele>1492.044</ele>
        <time>2018-12-27T20:05:25Z</time>
      </trkpt>
      <trkpt lat="36.861410" lon="-111.338570">
        <ele>1494.889</ele>
        <time>2018-12-27T20:05:45Z</time>
      </trkpt>
      <trkpt lat="36.859700" lon="-111.338010">
        <ele>1496.278</ele>
        <time>2018-12-27T20:06:05Z</time>
      </trkpt>
      <trkpt lat="36.857070" lon="-111.337150">
        <ele>1504.581</ele>
        <time>2018-12-27T20:06:25Z</time>
      </trkpt>
      <trkpt lat="36.856550" lon="-111.336950">
        <ele>1505.861</ele>
        <time>2018-12-27T20:06:45Z</time>
      </trkpt>
      <trkpt lat="36.856280" lon="-111.336830">
        <ele>1506.917</ele>
        <time>2018-12-27T20:07:05Z</time>
      </trkpt>
      <trkpt lat="36.855860" lon="-111.336610">
        <ele>1507.808</ele>
        <time>2018-12-27T20:07:25Z</time>
      </trkpt>
      <trkpt lat="36.855580" lon="-111.336440">
        <ele>1509.011</ele>
        <time>2018-12-27T20:07:45Z</time>
      </trkpt>
      <trkpt lat="36.855220" lon="-111.336210">
        <ele>1510.759</ele>
        <time>2018-12-27T20:08:05Z</time>
      </trkpt>
      <trkpt lat="36.853940" lon="-111.335390">
        <ele>1517.954</ele>
        <time>2018-12-27T20:08:25Z</time>
      </trkpt>
      <trkpt lat="36.851660" lon="-111.333900">
        <ele>1527.175</ele>
        <time>2018-12-27T20:08:45Z</time>
      </trkpt>
      <trkpt lat="36.850550" lon="-111.333190">
        <ele>1531.549</ele>
        <time>2018-12-27T20:09:05Z</time>
      </trkpt>
      <trkpt lat="36.849380" lon="-111.332440">
        <ele>1537.876</ele>
        <time>2018-12-27T20:09:25Z</time>
      </trkpt>
      <trkpt lat="36.845530" lon="-111.329930">
        <ele>1545.121</ele>
        <time>2018-12-27T20:09:45Z</time>
      </trkpt>
      <trkpt lat="36.844600" lon="-111.329350">
        <ele>1549.820</ele>
        <time>2018-12-27T20:10:05Z</time>
      </trkpt>
      <trkpt lat="36.844240" lon="-111.329110">
        <ele>1551.488</ele>
        <time>2018-12-27T20:10:25Z</time>
      </trkpt>
      <trkpt lat="36.844090" lon="-111.328990">
        <ele>1552.124</ele>
        <time>2018-12-27T20:10:45Z</time>
      </trkpt>
      <trkpt lat="36.843700" lon="-111.328710">
        <ele>1554.026</ele>
        <time>2018-12-27T20:11:05Z</time>
      </trkpt>
      <trkpt lat="36.843500" lon="-111.328530">
        <ele>1554.708</ele>
        <time>2018-12-27T20:11:25Z</time>
      </trkpt>
      <trkpt lat="36.843340" lon="-111.328390">
        <ele>1555.141</ele>
        <time>2018-12-27T20:11:45Z</time>
      </trkpt>
      <trkpt lat="36.843140" lon="-111.328200">
        <ele>1555.319</ele>
        <time>2018-12-27T20:12:05Z</time>
      </trkpt>
      <trkpt lat="36.842830" lon="-111.327880">
        <ele>1555.884</ele>
        <time>2018-12-27T20:12:25Z</time>
      </trkpt>
      <trkpt lat="36.842610" lon="-111.327640">
        <ele>1556.135</ele>
        <time>2018-12-27T20:12:45Z</time>
      </trkpt>
      <trkpt lat="36.841650" lon="-111.326500">
        <ele>1556.919</ele>
        <time>2018-12-27T20:13:05Z</time>
      </trkpt>
      <trkpt lat="36.840740" lon="-111.325400">
        <ele>1558.436</ele>
        <time>2018-12-27T20:13:25Z</time>
      </trkpt>
      <trkpt lat="36.839680" lon="-111.324130">
        <ele>1561.761</ele>
        <time>2018-12-27T20:13:45Z</time>
      </trkpt>
      <trkpt lat="36.837110" lon="-111.321070">
        <ele>1574.360</ele>
        <time>2018-12-27T20:14:05Z</time>
      </trkpt>
      <trkpt lat="36.833030" lon="-111.316220">
        <ele>1595.784</ele>
        <time>2018-12-27T20:14:25Z</time>
      </trkpt>
      <trkpt lat="36.832820" lon="-111.315960">
        <ele>1596.507</ele>
        <time>2018-12-27T20:14:45Z</time>
      </trkpt>
      <trkpt lat="36.831690" lon="-111.314610">
        <ele>1602.417</ele>
        <time>2018-12-27T20:15:05Z</time>
      </trkpt>
      <trkpt lat="36.830230" lon="-111.312870">
        <ele>1605.908</ele>
        <time>2018-12-27T20:15:25Z</time>
      </trkpt>
      <trkpt lat="36.829510" lon="-111.312010">
        <ele>1608.561</ele>
        <time>2018-12-27T20:15:45Z</time>
      </trkpt>
      <trkpt lat="36.829000" lon="-111.311410">
        <ele>1609.249</ele>
        <time>2018-12-27T20:16:05Z</time>
      </trkpt>
      <trkpt lat="36.828760" lon="-111.311130">
        <ele>1609.574</ele>
        <time>2018-12-27T20:16:25Z</time>
      </trkpt>
      <trkpt lat="36.828520" lon="-111.310860">
        <ele>1610.425</ele>
        <time>2018-12-27T20:16:45Z</time>
      </trkpt>
      <trkpt lat="36.828320" lon="-111.310660">
        <ele>1610.929</ele>
        <time>2018-12-27T20:17:05Z</time>
      </trkpt>
      <trkpt lat="36.828050" lon="-111.310430">
        <ele>1611.476</ele>
        <time>2018-12-27T20:17:25Z</time>
      </trkpt>
      <trkpt lat="36.827760" lon="-111.310190">
        <ele>1611.671</ele>
        <time>2018-12-27T20:17:45Z</time>
      </trkpt>
      <trkpt lat="36.827450" lon="-111.309980">
        <ele>1611.990</ele>
        <time>2018-12-27T20:18:05Z</time>
      </trkpt>
      <trkpt lat="36.827290" lon="-111.309900">
        <ele>1611.927</ele>
        <time>2018-12-27T20:18:25Z</time>
      </trkpt>
      <trkpt lat="36.827100" lon="-111.309790">
        <ele>1611.968</ele>
        <time>2018-12-27T20:18:45Z</time>
      </trkpt>
      <trkpt lat="36.826970" lon="-111.309720">
        <ele>1611.714</ele>
        <time>2018-12-27T20:19:05Z</time>
      </trkpt>
      <trkpt lat="36.826720" lon="-111.309620">
        <ele>1611.208</ele>
        <time>2018-12-27T20:19:25Z</time>
      </trkpt>
      <trkpt lat="36.826110" lon="-111.309410">
        <ele>1610.325</ele>
        <time>2018-12-27T20:19:45Z</time>
      </trkpt>
      <trkpt lat="36.824230" lon="-111.308880">
        <ele>1606.053</ele>
        <time>2018-12-27T20:20:05Z</time>
      </trkpt>
      <trkpt lat="36.820170" lon="-111.307730">
        <ele>1616.048</ele>
        <time>2018-12-27T20:20:25Z</time>
      </trkpt>
      <trkpt lat="36.820020" lon="-111.307690">
        <ele>1616.469</ele>
        <time>2018-12-27T20:20:45Z</time>
      </trkpt>
      <trkpt lat="36.819360" lon="-111.307510">
        <ele>1618.033</ele>
        <time>2018-12-27T20:21:05Z</time>
      </trkpt>
      <trkpt lat="36.818630" lon="-111.307280">
        <ele>1620.260</ele>
        <time>2018-12-27T20:21:25Z</time>
      </trkpt>
      <trkpt lat="36.817950" lon="-111.307070">
        <ele>1623.015</ele>
        <time>2018-12-27T20:21:45Z</time>
      </trkpt>
      <trkpt lat="36.817580" lon="-111.306960">
        <ele>1624.314</ele>
        <time>2018-12-27T20:22:05Z</time>
      </trkpt>
      <trkpt lat="36.817230" lon="-111.306870">
        <ele>1626.411</ele>
        <time>2018-12-27T20:22:25Z</time>
      </trkpt>
      <trkpt lat="36.815930" lon="-111.306520">
        <ele>1633.921</ele>
        <time>2018-12-27T20:22:45Z</time>
      </trkpt>
      <trkpt lat="36.814530" lon="-111.306130">
        <ele>1641.803</ele>
        <time>2018-12-27T20:23:05Z</time>
      </trkpt>
      <trkpt lat="36.814110" lon="-111.306030">
        <ele>1643.908</ele>
        <time>2018-12-27T20:23:25Z</time>
      </trkpt>
      <trkpt lat="36.813870" lon="-111.306000">
        <ele>1645.254</ele>
        <time>2018-12-27T20:23:45Z</time>
      </trkpt>
      <trkpt lat="36.813700" lon="-111.305980">
        <ele>1646.042</ele>
        <time>2018-12-27T20:24:05Z</time>
      </trkpt>
      <trkpt lat="36.813430" lon="-111.305960">
        <ele>1646.987</ele>
        <time>2018-12-27T20:24:25Z</time>
      </trkpt>
      <trkpt lat="36.813210" lon="-111.305960">
        <ele>1648.368</ele>
        <time>2018-12-27T20:24:45Z</time>
      </trkpt>
      <trkpt lat="36.812960" lon="-111.305960">
        <ele>1650.092</ele>
        <time>2018-12-27T20:25:05Z</time>
      </trkpt>
      <trkpt lat="36.812020" lon="-111.306040">
        <ele>1653.759</ele>
        <time>2018-12-27T20:25:25Z</time>
      </trkpt>
      <trkpt lat="36.811970" lon="-111.306040">
        <ele>1654.074</ele>
        <time>2018-12-27T20:25:45Z</time>
      </trkpt>
      <trkpt lat="36.809900" lon="-111.306400">
        <ele>1654.573</ele>
        <time>2018-12-27T20:26:05Z</time>
      </trkpt>
      <trkpt lat="36.809460" lon="-111.306450">
        <ele>1654.927</ele>
        <time>2018-12-27T20:26:25Z</time>
      </trkpt>
      <trkpt lat="36.808920" lon="-111.306520">
        <ele>1656.968</ele>
        <time>2018-12-27T20:26:45Z</time>
      </trkpt>
      <trkpt lat="36.808860" lon="-111.306520">
        <ele>1657.214</ele>
        <time>2018-12-27T20:27:05Z</time>
      </trkpt>
      <trkpt lat="36.808550" lon="-111.306540">
        <ele>1658.808</ele>
        <time>2018-12-27T20:27:25Z</time>
      </trkpt>
      <trkpt lat="36.808250" lon="-111.306540">
        <ele>1659.345</ele>
        <time>2018-12-27T20:27:45Z</time>
      </trkpt>
      <trkpt lat="36.807810" lon="-111.306530">
        <ele>1659.453</ele>
        <time>2018-12-27T20:28:05Z</time>
      </trkpt>
      <trkpt lat="36.807580" lon="-111.306500">
        <ele>1659.858</ele>
        <time>2018-12-27T20:28:25Z</time>
      </trkpt>
      <trkpt lat="36.807460" lon="-111.306490">
        <ele>1660.319</ele>
        <time>2018-12-27T20:28:45Z</time>
      </trkpt>
      <trkpt lat="36.807140" lon="-111.306430">
        <ele>1662.453</ele>
        <time>2018-12-27T20:29:05Z</time>
      </trkpt>
      <trkpt lat="36.806920" lon="-111.306380">
        <ele>1664.030</ele>
        <time>2018-12-27T20:29:25Z</time>
      </trkpt>
      <trkpt lat="36.806860" lon="-111.306360">
        <ele>1664.485</ele>
        <time>2018-12-27T20:29:45Z</time>
      </trkpt>
      <trkpt lat="36.806640" lon="-111.306310">
        <ele>1665.614</ele>
        <time>2018-12-27T20:30:05Z</time>
      </trkpt>
      <trkpt lat="36.806310" lon="-111.306210">
        <ele>1667.099</ele>
        <time>2018-12-27T20:30:25Z</time>
      </trkpt>
      <trkpt lat="36.806100" lon="-111.306130">
        <ele>1668.007</ele>
        <time>2018-12-27T20:30:45Z</time>
      </trkpt>
      <trkpt lat="36.805810" lon="-111.306010">
        <ele>1669.427</ele>
        <time>2018-12-27T20:31:05Z</time>
      </trkpt>
      <trkpt lat="36.805570" lon="-111.305900">
        <ele>1670.108</ele>
        <time>2018-12-27T20:31:25Z</time>
      </trkpt>
      <trkpt lat="36.805120" lon="-111.305670">
        <ele>1670.442</ele>
        <time>2018-12-27T20:31:45Z</time>
      </trkpt>
      <trkpt lat="36.804600" lon="-111.305360">
        <ele>1669.370</ele>
        <time>2018-12-27T20:32:05Z</time>
      </trkpt>
      <trkpt lat="36.797060" lon="-111.300500">
        <ele>1681.915</ele>
        <time>2018-12-27T20:32:25Z</time>
      </trkpt>
      <trkpt lat="36.796660" lon="-111.300240">
        <ele>1680.066</ele>
        <time>2018-12-27T20:32:45Z</time>
      </trkpt>
      <trkpt lat="36.795190" lon="-111.299300">
        <ele>1679.260</ele>
        <time>2018-12-27T20:33:05Z</time>
      </trkpt>
      <trkpt lat="36.794500" lon="-111.298850">
        <ele>1678.877</ele>
        <time>2018-12-27T20:33:25Z</time>
      </trkpt>
      <trkpt lat="36.793330" lon="-111.298090">
        <ele>1677.882</ele>
        <time>2018-12-27T20:33:45Z</time>
      </trkpt>
      <trkpt lat="36.779080" lon="-111.288900">
        <ele>1693.381</ele>
        <time>2018-12-27T20:34:05Z</time>
      </trkpt>
      <trkpt lat="36.776250" lon="-111.287070">
        <ele>1695.745</ele>
        <time>2018-12-27T20:34:25Z</time>
      </trkpt>
      <trkpt lat="36.775670" lon="-111.286710">
        <ele>1695.847</ele>
        <time>2018-12-27T20:34:45Z</time>
      </trkpt>
      <trkpt lat="36.775180" lon="-111.286400">
        <ele>1697.211</ele>
        <time>2018-12-27T20:35:05Z</time>
      </trkpt>
      <trkpt lat="36.774800" lon="-111.286180">
        <ele>1699.808</ele>
        <time>2018-12-27T20:35:25Z</time>
      </trkpt>
      <trkpt lat="36.774500" lon="-111.286030">
        <ele>1701.897</ele>
        <time>2018-12-27T20:35:45Z</time>
      </trkpt>
      <trkpt lat="36.774210" lon="-111.285910">
        <ele>1702.445</ele>
        <time>2018-12-27T20:36:05Z</time>
      </trkpt>
      <trkpt lat="36.773820" lon="-111.285770">
        <ele>1703.420</ele>
        <time>2018-12-27T20:36:25Z</time>
      </trkpt>
      <trkpt lat="36.773450" lon="-111.285650">
        <ele>1704.331</ele>
        <time>2018-12-27T20:36:45Z</time>
      </trkpt>
      <trkpt lat="36.773090" lon="-111.285560">
        <ele>1705.775</ele>
        <time>2018-12-27T20:37:05Z</time>
      </trkpt>
      <trkpt lat="36.772790" lon="-111.285500">
        <ele>1707.322</ele>
        <time>2018-12-27T20:37:25Z</time>
      </trkpt>
      <trkpt lat="36.772460" lon="-111.285450">
        <ele>1708.157</ele>
        <time>2018-12-27T20:37:45Z</time>
      </trkpt>
      <trkpt lat="36.772150" lon="-111.285430">
        <ele>1708.366</ele>
        <time>2018-12-27T20:38:05Z</time>
      </trkpt>
      <trkpt lat="36.771900" lon="-111.285410">
        <ele>1708.447</ele>
        <time>2018-12-27T20:38:25Z</time>
      </trkpt>
      <trkpt lat="36.769420" lon="-111.285350">
        <ele>1702.329</ele>
        <time>2018-12-27T20:38:45Z</time>
      </trkpt>
      <trkpt lat="36.766640" lon="-111.285290">
        <ele>1698.121</ele>
        <time>2018-12-27T20:39:05Z</time>
      </trkpt>
      <trkpt lat="36.763910" lon="-111.285220">
        <ele>1695.908</ele>
        <time>2018-12-27T20:39:25Z</time>
      </trkpt>
      <trkpt lat="36.762810" lon="-111.285190">
        <ele>1694.617</ele>
        <time>2018-12-27T20:39:45Z</time>
      </trkpt>
      <trkpt lat="36.759260" lon="-111.285090">
        <ele>1708.395</ele>
        <time>2018-12-27T20:40:05Z</time>
      </trkpt>
      <trkpt lat="36.758090" lon="-111.285070">
        <ele>1709.740</ele>
        <time>2018-12-27T20:40:25Z</time>
      </trkpt>
      <trkpt lat="36.751830" lon="-111.284920">
        <ele>1714.461</ele>
        <time>2018-12-27T20:40:45Z</time>
      </trkpt>
      <trkpt lat="36.748960" lon="-111.284830">
        <ele>1714.295</ele>
        <time>2018-12-27T20:41:05Z</time>
      </trkpt>
      <trkpt lat="36.748410" lon="-111.284820">
        <ele>1714.042</ele>
        <time>2018-12-27T20:41:25Z</time>
      </trkpt>
      <trkpt lat="36.740700" lon="-111.284620">
        <ele>1723.897</ele>
        <time>2018-12-27T20:41:45Z</time>
      </trkpt>
      <trkpt lat="36.735170" lon="-111.284480">
        <ele>1728.996</ele>
        <time>2018-12-27T20:42:05Z</time>
      </trkpt>
      <trkpt lat="36.734790" lon="-111.284470">
        <ele>1731.093</ele>
        <time>2018-12-27T20:42:25Z</time>
      </trkpt>
      <trkpt lat="36.734580" lon="-111.284450">
        <ele>1732.165</ele>
        <time>2018-12-27T20:42:45Z</time>
      </trkpt>
      <trkpt lat="36.734290" lon="-111.284420">
        <ele>1732.421</ele>
        <time>2018-12-27T20:43:05Z</time>
      </trkpt>
      <trkpt lat="36.734010" lon="-111.284370">
        <ele>1733.108</ele>
        <time>2018-12-27T20:43:25Z</time>
      </trkpt>
      <trkpt lat="36.733730" lon="-111.284300">
        <ele>1735.622</ele>
        <time>2018-12-27T20:43:45Z</time>
      </trkpt>
      <trkpt lat="36.733550" lon="-111.284260">
        <ele>1737.450</ele>
        <time>2018-12-27T20:44:05Z</time>
      </trkpt>
      <trkpt lat="36.733230" lon="-111.284160">
        <ele>1738.815</ele>
        <time>2018-12-27T20:44:25Z</time>
      </trkpt>
      <trkpt lat="36.732920" lon="-111.284030">
        <ele>1740.026</ele>
        <time>2018-12-27T20:44:45Z</time>
      </trkpt>
      <trkpt lat="36.732650" lon="-111.283900">
        <ele>1741.290</ele>
        <time>2018-12-27T20:45:05Z</time>
      </trkpt>
      <trkpt lat="36.732360" lon="-111.283740">
        <ele>1742.067</ele>
        <time>2018-12-27T20:45:25Z</time>
      </trkpt>
      <trkpt lat="36.730830" lon="-111.282850">
        <ele>1744.512</ele>
        <time>2018-12-27T20:45:45Z</time>
      </trkpt>
      <trkpt lat="36.727100" lon="-111.280670">
        <ele>1744.841</ele>
        <time>2018-12-27T20:46:05Z</time>
      </trkpt>
      <trkpt lat="36.724300" lon="-111.279050">
        <ele>1750.384</ele>
        <time>2018-12-27T20:46:25Z</time>
      </trkpt>
      <trkpt lat="36.719350" lon="-111.276170">
        <ele>1741.507</ele>
        <time>2018-12-27T20:46:45Z</time>
      </trkpt>
      <trkpt lat="36.716470" lon="-111.274500">
        <ele>1745.217</ele>
        <time>2018-12-27T20:47:05Z</time>
      </trkpt>
      <trkpt lat="36.713830" lon="-111.272970">
        <ele>1747.608</ele>
        <time>2018-12-27T20:47:25Z</time>
      </trkpt>
      <trkpt lat="36.710980" lon="-111.271310">
        <ele>1749.641</ele>
        <time>2018-12-27T20:47:45Z</time>
      </trkpt>
      <trkpt lat="36.707400" lon="-111.269230">
        <ele>1752.669</ele>
        <time>2018-12-27T20:48:05Z</time>
      </trkpt>
      <trkpt lat="36.702700" lon="-111.266500">
        <ele>1757.284</ele>
        <time>2018-12-27T20:48:25Z</time>
      </trkpt>
      <trkpt lat="36.684840" lon="-111.256120">
        <ele>1776.295</ele>
        <time>2018-12-27T20:48:45Z</time>
      </trkpt>
      <trkpt lat="36.683450" lon="-111.255310">
        <ele>1780.639</ele>
        <time>2018-12-27T20:49:05Z</time>
      </trkpt>
      <trkpt lat="36.683110" lon="-111.255120">
        <ele>1781.456</ele>
        <time>2018-12-27T20:49:25Z</time>
      </trkpt>
      <trkpt lat="36.682930" lon="-111.255020">
        <ele>1781.861</ele>
        <time>2018-12-27T20:49:45Z</time>
      </trkpt>
      <trkpt lat="36.682800" lon="-111.254950">
        <ele>1782.380</ele>
        <time>2018-12-27T20:50:05Z</time>
      </trkpt>
      <trkpt lat="36.682650" lon="-111.254870">
        <ele>1782.923</ele>
        <time>2018-12-27T20:50:25Z</time>
      </trkpt>
      <trkpt lat="36.682490" lon="-111.254810">
        <ele>1783.783</ele>
        <time>2018-12-27T20:50:45Z</time>
      </trkpt>
      <trkpt lat="36.682330" lon="-111.254750">
        <ele>1784.511</ele>
        <time>2018-12-27T20:51:05Z</time>
      </trkpt>
      <trkpt lat="36.682180" lon="-111.254690">
        <ele>1785.308</ele>
        <time>2018-12-27T20:51:25Z</time>
      </trkpt>
      <trkpt lat="36.681920" lon="-111.254620">
        <ele>1786.385</ele>
        <time>2018-12-27T20:51:45Z</time>
      </trkpt>
      <trkpt lat="36.681710" lon="-111.254570">
        <ele>1786.993</ele>
        <time>2018-12-27T20:52:05Z</time>
      </trkpt>
      <trkpt lat="36.681520" lon="-111.254530">
        <ele>1787.348</ele>
        <time>2018-12-27T20:52:25Z</time>
      </trkpt>
      <trkpt lat="36.681330" lon="-111.254500">
        <ele>1787.539</ele>
        <time>2018-12-27T20:52:45Z</time>
      </trkpt>
      <trkpt lat="36.681150" lon="-111.254480">
        <ele>1787.573</ele>
        <time>2018-12-27T20:53:05Z</time>
      </trkpt>
      <trkpt lat="36.680980" lon="-111.254480">
        <ele>1787.540</ele>
        <time>2018-12-27T20:53:25Z</time>
      </trkpt>
      <trkpt lat="36.680720" lon="-111.254480">
        <ele>1787.515</ele>
        <time>2018-12-27T20:53:45Z</time>
      </trkpt>
      <trkpt lat="36.680470" lon="-111.254490">
        <ele>1787.364</ele>
        <time>2018-12-27T20:54:05Z</time>
      </trkpt>
      <trkpt lat="36.680240" lon="-111.254520">
        <ele>1787.022</ele>
        <time>2018-12-27T20:54:25Z</time>
      </trkpt>
      <trkpt lat="36.680120" lon="-111.254530">
        <ele>1786.962</ele>
        <time>2018-12-27T20:54:45Z</time>
      </trkpt>
      <trkpt lat="36.679930" lon="-111.254570">
        <ele>1786.608</ele>
        <time>2018-12-27T20:55:05Z</time>
      </trkpt>
      <trkpt lat="36.679680" lon="-111.254630">
        <ele>1786.408</ele>
        <time>2018-12-27T20:55:25Z</time>
      </trkpt>
      <trkpt lat="36.679540" lon="-111.254680">
        <ele>1786.175</ele>
        <time>2018-12-27T20:55:45Z</time>
      </trkpt>
      <trkpt lat="36.679360" lon="-111.254740">
        <ele>1785.433</ele>
        <time>2018-12-27T20:56:05Z</time>
      </trkpt>
      <trkpt lat="36.679180" lon="-111.254810">
        <ele>1784.758</ele>
        <time>2018-12-27T20:56:25Z</time>
      </trkpt>
      <trkpt lat="36.679000" lon="-111.254880">
        <ele>1783.919</ele>
        <time>2018-12-27T20:56:45Z</time>
      </trkpt>
      <trkpt lat="36.678440" lon="-111.255120">
        <ele>1782.223</ele>
        <time>2018-12-27T20:57:05Z</time>
      </trkpt>
      <trkpt lat="36.677600" lon="-111.255490">
        <ele>1778.570</ele>
        <time>2018-12-27T20:57:25Z</time>
      </trkpt>
      <trkpt lat="36.677360" lon="-111.255600">
        <ele>1776.745</ele>
        <time>2018-12-27T20:57:45Z</time>
      </trkpt>
      <trkpt lat="36.676860" lon="-111.255820">
        <ele>1775.014</ele>
        <time>2018-12-27T20:58:05Z</time>
      </trkpt>
      <trkpt lat="36.675780" lon="-111.256290">
        <ele>1773.234</ele>
        <time>2018-12-27T20:58:25Z</time>
      </trkpt>
      <trkpt lat="36.675190" lon="-111.256550">
        <ele>1772.155</ele>
        <time>2018-12-27T20:58:45Z</time>
      </trkpt>
      <trkpt lat="36.674700" lon="-111.256760">
        <ele>1772.310</ele>
        <time>2018-12-27T20:59:05Z</time>
      </trkpt>
      <trkpt lat="36.674460" lon="-111.256850">
        <ele>1772.608</ele>
        <time>2018-12-27T20:59:25Z</time>
      </trkpt>
      <trkpt lat="36.674240" lon="-111.256920">
        <ele>1772.776</ele>
        <time>2018-12-27T20:59:45Z</time>
      </trkpt>
      <trkpt lat="36.674030" lon="-111.256980">
        <ele>1772.594</ele>
        <time>2018-12-27T21:00:05Z</time>
      </trkpt>
      <trkpt lat="36.673790" lon="-111.257030">
        <ele>1772.219</ele>
        <time>2018-12-27T21:00:25Z</time>
      </trkpt>
      <trkpt lat="36.673640" lon="-111.257050">
        <ele>1772.150</ele>
        <time>2018-12-27T21:00:45Z</time>
      </trkpt>
      <trkpt lat="36.673430" lon="-111.257070">
        <ele>1771.994</ele>
        <time>2018-12-27T21:01:05Z</time>
      </trkpt>
      <trkpt lat="36.673250" lon="-111.257080">
        <ele>1771.891</ele>
        <time>2018-12-27T21:01:25Z</time>
      </trkpt>
      <trkpt lat="36.673040" lon="-111.257090">
        <ele>1771.616</ele>
        <time>2018-12-27T21:01:45Z</time>
      </trkpt>
      <trkpt lat="36.672880" lon="-111.257080">
        <ele>1771.615</ele>
        <time>2018-12-27T21:02:05Z</time>
      </trkpt>
      <trkpt lat="36.672650" lon="-111.257060">
        <ele>1771.578</ele>
        <time>2018-12-27T21:02:25Z</time>
      </trkpt>
      <trkpt lat="36.672550" lon="-111.257050">
        <ele>1771.733</ele>
        <time>2018-12-27T21:02:45Z</time>
      </trkpt>
      <trkpt lat="36.672450" lon="-111.257040">
        <ele>1771.826</ele>
        <time>2018-12-27T21:03:05Z</time>
      </trkpt>
      <trkpt lat="36.672330" lon="-111.257020">
        <ele>1772.108</ele>
        <time>2018-12-27T21:03:25Z</time>
      </trkpt>
      <trkpt lat="36.672220" lon="-111.257000">
        <ele>1772.510</ele>
        <time>2018-12-27T21:03:45Z</time>
      </trkpt>
      <trkpt lat="36.672020" lon="-111.256950">
        <ele>1773.388</ele>
        <time>2018-12-27T21:04:05Z</time>
      </trkpt>
      <trkpt lat="36.671910" lon="-111.256930">
        <ele>1773.693</ele>
        <time>2018-12-27T21:04:25Z</time>
      </trkpt>
      <trkpt lat="36.671780" lon="-111.256890">
        <ele>1774.124</ele>
        <time>2018-12-27T21:04:45Z</time>
      </trkpt>
      <trkpt lat="36.671500" lon="-111.256790">
        <ele>1774.998</ele>
        <time>2018-12-27T21:05:05Z</time>
      </trkpt>
      <trkpt lat="36.671330" lon="-111.256720">
        <ele>1776.625</ele>
        <time>2018-12-27T21:05:25Z</time>
      </trkpt>
      <trkpt lat="36.671130" lon="-111.256630">
        <ele>1777.670</ele>
        <time>2018-12-27T21:05:45Z</time>
      </trkpt>
      <trkpt lat="36.670960" lon="-111.256540">
        <ele>1778.569</ele>
        <time>2018-12-27T21:06:05Z</time>
      </trkpt>
      <trkpt lat="36.670810" lon="-111.256460">
        <ele>1779.312</ele>
        <time>2018-12-27T21:06:25Z</time>
      </trkpt>
      <trkpt lat="36.670610" lon="-111.256340">
        <ele>1780.632</ele>
        <time>2018-12-27T21:06:45Z</time>
      </trkpt>
      <trkpt lat="36.670320" lon="-111.256130">
        <ele>1783.305</ele>
        <time>2018-12-27T21:07:05Z</time>
      </trkpt>
      <trkpt lat="36.670140" lon="-111.255990">
        <ele>1784.008</ele>
        <time>2018-12-27T21:07:25Z</time>
      </trkpt>
      <trkpt lat="36.669950" lon="-111.255820">
        <ele>1784.964</ele>
        <time>2018-12-27T21:07:45Z</time>
      </trkpt>
      <trkpt lat="36.669650" lon="-111.255550">
        <ele>1785.312</ele>
        <time>2018-12-27T21:08:05Z</time>
      </trkpt>
      <trkpt lat="36.666560" lon="-111.252700">
        <ele>1781.137</ele>
        <time>2018-12-27T21:08:25Z</time>
      </trkpt>
      <trkpt lat="36.665590" lon="-111.251810">
        <ele>1781.048</ele>
        <time>2018-12-27T21:08:45Z</time>
      </trkpt>
      <trkpt lat="36.665010" lon="-111.251280">
        <ele>1781.462</ele>
        <time>2018-12-27T21:09:05Z</time>
      </trkpt>
      <trkpt lat="36.664410" lon="-111.250730">
        <ele>1782.029</ele>
        <time>2018-12-27T21:09:25Z</time>
      </trkpt>
      <trkpt lat="36.664390" lon="-111.250710">
        <ele>1782.044</ele>
        <time>2018-12-27T21:09:45Z</time>
      </trkpt>
      <trkpt lat="36.664010" lon="-111.250370">
        <ele>1781.563</ele>
        <time>2018-12-27T21:10:05Z</time>
      </trkpt>
      <trkpt lat="36.663790" lon="-111.250160">
        <ele>1780.724</ele>
        <time>2018-12-27T21:10:25Z</time>
      </trkpt>
      <trkpt lat="36.663620" lon="-111.250000">
        <ele>1780.204</ele>
        <time>2018-12-27T21:10:45Z</time>
      </trkpt>
      <trkpt lat="36.662400" lon="-111.248880">
        <ele>1777.114</ele>
        <time>2018-12-27T21:11:05Z</time>
      </trkpt>
      <trkpt lat="36.660770" lon="-111.247380">
        <ele>1770.208</ele>
        <time>2018-12-27T21:11:25Z</time>
      </trkpt>
      <trkpt lat="36.660160" lon="-111.246810">
        <ele>1768.175</ele>
        <time>2018-12-27T21:11:45Z</time>
      </trkpt>
      <trkpt lat="36.659860" lon="-111.246540">
        <ele>1767.683</ele>
        <time>2018-12-27T21:12:05Z</time>
      </trkpt>
      <trkpt lat="36.659490" lon="-111.246200">
        <ele>1767.078</ele>
        <time>2018-12-27T21:12:25Z</time>
      </trkpt>
      <trkpt lat="36.658190" lon="-111.245000">
        <ele>1764.239</ele>
        <time>2018-12-27T21:12:45Z</time>
      </trkpt>
      <trkpt lat="36.657230" lon="-111.244110">
        <ele>1763.713</ele>
        <time>2018-12-27T21:13:05Z</time>
      </trkpt>
      <trkpt lat="36.656550" lon="-111.243490">
        <ele>1763.690</ele>
        <time>2018-12-27T21:13:25Z</time>
      </trkpt>
      <trkpt lat="36.655910" lon="-111.242900">
        <ele>1762.215</ele>
        <time>2018-12-27T21:13:45Z</time>
      </trkpt>
      <trkpt lat="36.655720" lon="-111.242720">
        <ele>1761.174</ele>
        <time>2018-12-27T21:14:05Z</time>
      </trkpt>
      <trkpt lat="36.655520" lon="-111.242530">
        <ele>1759.379</ele>
        <time>2018-12-27T21:14:25Z</time>
      </trkpt>
      <trkpt lat="36.655350" lon="-111.242370">
        <ele>1757.705</ele>
        <time>2018-12-27T21:14:45Z</time>
      </trkpt>
      <trkpt lat="36.654810" lon="-111.241880">
        <ele>1756.625</ele>
        <time>2018-12-27T21:15:05Z</time>
      </trkpt>
      <trkpt lat="36.654600" lon="-111.241690">
        <ele>1756.208</ele>
        <time>2018-12-27T21:15:25Z</time>
      </trkpt>
      <trkpt lat="36.654430" lon="-111.241510">
        <ele>1756.110</ele>
        <time>2018-12-27T21:15:45Z</time>
      </trkpt>
      <trkpt lat="36.654240" lon="-111.241330">
        <ele>1756.198</ele>
        <time>2018-12-27T21:16:05Z</time>
      </trkpt>
      <trkpt lat="36.654070" lon="-111.241150">
        <ele>1756.023</ele>
        <time>2018-12-27T21:16:25Z</time>
      </trkpt>
      <trkpt lat="36.653880" lon="-111.240930">
        <ele>1756.024</ele>
        <time>2018-12-27T21:16:45Z</time>
      </trkpt>
      <trkpt lat="36.653740" lon="-111.240760">
        <ele>1756.118</ele>
        <time>2018-12-27T21:17:05Z</time>
      </trkpt>
      <trkpt lat="36.653530" lon="-111.240490">
        <ele>1756.465</ele>
        <time>2018-12-27T21:17:25Z</time>
      </trkpt>
      <trkpt lat="36.653410" lon="-111.240340">
        <ele>1756.550</ele>
        <time>2018-12-27T21:17:45Z</time>
      </trkpt>
      <trkpt lat="36.653280" lon="-111.240140">
        <ele>1756.879</ele>
        <time>2018-12-27T21:18:05Z</time>
      </trkpt>
      <trkpt lat="36.653160" lon="-111.239970">
        <ele>1756.989</ele>
        <time>2018-12-27T21:18:25Z</time>
      </trkpt>
      <trkpt lat="36.653090" lon="-111.239860">
        <ele>1757.006</ele>
        <time>2018-12-27T21:18:45Z</time>
      </trkpt>
      <trkpt lat="36.653030" lon="-111.239760">
        <ele>1757.126</ele>
        <time>2018-12-27T21:19:05Z</time>
      </trkpt>
      <trkpt lat="36.652900" lon="-111.239550">
        <ele>1757.708</ele>
        <time>2018-12-27T21:19:25Z</time>
      </trkpt>
      <trkpt lat="36.652810" lon="-111.239390">
        <ele>1758.211</ele>
        <time>2018-12-27T21:19:45Z</time>
      </trkpt>
      <trkpt lat="36.652730" lon="-111.239240">
        <ele>1758.739</ele>
        <time>2018-12-27T21:20:05Z</time>
      </trkpt>
      <trkpt lat="36.652520" lon="-111.238850">
        <ele>1760.244</ele>
        <time>2018-12-27T21:20:25Z</time>
      </trkpt>
      <trkpt lat="36.651980" lon="-111.237840">
        <ele>1763.195</ele>
        <time>2018-12-27T21:20:45Z</time>
      </trkpt>
      <trkpt lat="36.651870" lon="-111.237640">
        <ele>1763.269</ele>
        <time>2018-12-27T21:21:05Z</time>
      </trkpt>
      <trkpt lat="36.651000" lon="-111.235980">
        <ele>1762.286</ele>
        <time>2018-12-27T21:21:25Z</time>
      </trkpt>
      <trkpt lat="36.650180" lon="-111.234420">
        <ele>1756.761</ele>
        <time>2018-12-27T21:21:45Z</time>
      </trkpt>
      <trkpt lat="36.649410" lon="-111.232930">
        <ele>1753.420</ele>
        <time>2018-12-27T21:22:05Z</time>
      </trkpt>
      <trkpt lat="36.646900" lon="-111.228150">
        <ele>1749.337</ele>
        <time>2018-12-27T21:22:25Z</time>
      </trkpt>
      <trkpt lat="36.644570" lon="-111.223720">
        <ele>1751.649</ele>
        <time>2018-12-27T21:22:45Z</time>
      </trkpt>
      <trkpt lat="36.644190" lon="-111.223010">
        <ele>1754.313</ele>
        <time>2018-12-27T21:23:05Z</time>
      </trkpt>
      <trkpt lat="36.643880" lon="-111.222420">
        <ele>1752.408</ele>
        <time>2018-12-27T21:23:25Z</time>
      </trkpt>
      <trkpt lat="36.643220" lon="-111.221150">
        <ele>1751.586</ele>
        <time>2018-12-27T21:23:45Z</time>
      </trkpt>
      <trkpt lat="36.643010" lon="-111.220740">
        <ele>1751.614</ele>
        <time>2018-12-27T21:24:05Z</time>
      </trkpt>
      <trkpt lat="36.642890" lon="-111.220530">
        <ele>1751.619</ele>
        <time>2018-12-27T21:24:25Z</time>
      </trkpt>
      <trkpt lat="36.642770" lon="-111.220340">
        <ele>1751.610</ele>
        <time>2018-12-27T21:24:45Z</time>
      </trkpt>
      <trkpt lat="36.642580" lon="-111.220040">
        <ele>1751.654</ele>
        <time>2018-12-27T21:25:05Z</time>
      </trkpt>
      <trkpt lat="36.642410" lon="-111.219790">
        <ele>1751.551</ele>
        <time>2018-12-27T21:25:25Z</time>
      </trkpt>
      <trkpt lat="36.642270" lon="-111.219610">
        <ele>1751.476</ele>
        <time>2018-12-27T21:25:45Z</time>
      </trkpt>
      <trkpt lat="36.642130" lon="-111.219430">
        <ele>1751.445</ele>
        <time>2018-12-27T21:26:05Z</time>
      </trkpt>
      <trkpt lat="36.642030" lon="-111.219300">
        <ele>1751.377</ele>
        <time>2018-12-27T21:26:25Z</time>
      </trkpt>
      <trkpt lat="36.641940" lon="-111.219190">
        <ele>1751.261</ele>
        <time>2018-12-27T21:26:45Z</time>
      </trkpt>
      <trkpt lat="36.641870" lon="-111.219100">
        <ele>1751.127</ele>
        <time>2018-12-27T21:27:05Z</time>
      </trkpt>
      <trkpt lat="36.641790" lon="-111.219020">
        <ele>1751.008</ele>
        <time>2018-12-27T21:27:25Z</time>
      </trkpt>
      <trkpt lat="36.641720" lon="-111.218930">
        <ele>1751.130</ele>
        <time>2018-12-27T21:27:45Z</time>
      </trkpt>
      <trkpt lat="36.641640" lon="-111.218850">
        <ele>1751.248</ele>
        <time>2018-12-27T21:28:05Z</time>
      </trkpt>
      <trkpt lat="36.641460" lon="-111.218670">
        <ele>1751.333</ele>
        <time>2018-12-27T21:28:25Z</time>
      </trkpt>
      <trkpt lat="36.641100" lon="-111.218290">
        <ele>1751.144</ele>
        <time>2018-12-27T21:28:45Z</time>
      </trkpt>
      <trkpt lat="36.640320" lon="-111.217480">
        <ele>1749.858</ele>
        <time>2018-12-27T21:29:05Z</time>
      </trkpt>
      <trkpt lat="36.639670" lon="-111.216800">
        <ele>1747.155</ele>
        <time>2018-12-27T21:29:25Z</time>
      </trkpt>
      <trkpt lat="36.638700" lon="-111.215800">
        <ele>1748.440</ele>
        <time>2018-12-27T21:29:45Z</time>
      </trkpt>
      <trkpt lat="36.638530" lon="-111.215620">
        <ele>1748.099</ele>
        <time>2018-12-27T21:30:05Z</time>
      </trkpt>
      <trkpt lat="36.638350" lon="-111.215430">
        <ele>1747.267</ele>
        <time>2018-12-27T21:30:25Z</time>
      </trkpt>
      <trkpt lat="36.638110" lon="-111.215180">
        <ele>1744.881</ele>
        <time>2018-12-27T21:30:45Z</time>
      </trkpt>
      <trkpt lat="36.637480" lon="-111.214530">
        <ele>1742.919</ele>
        <time>2018-12-27T21:31:05Z</time>
      </trkpt>
      <trkpt lat="36.636700" lon="-111.213720">
        <ele>1739.508</ele>
        <time>2018-12-27T21:31:25Z</time>
      </trkpt>
      <trkpt lat="36.636080" lon="-111.213080">
        <ele>1738.389</ele>
        <time>2018-12-27T21:31:45Z</time>
      </trkpt>
      <trkpt lat="36.634890" lon="-111.211850">
        <ele>1737.597</ele>
        <time>2018-12-27T21:32:05Z</time>
      </trkpt>
      <trkpt lat="36.634510" lon="-111.211450">
        <ele>1737.522</ele>
        <time>2018-12-27T21:32:25Z</time>
      </trkpt>
      <trkpt lat="36.634130" lon="-111.211050">
        <ele>1737.673</ele>
        <time>2018-12-27T21:32:45Z</time>
      </trkpt>
      <trkpt lat="36.631830" lon="-111.208660">
        <ele>1735.957</ele>
        <time>2018-12-27T21:33:05Z</time>
      </trkpt>
      <trkpt lat="36.630000" lon="-111.206750">
        <ele>1735.474</ele>
        <time>2018-12-27T21:33:25Z</time>
      </trkpt>
      <trkpt lat="36.629640" lon="-111.206370">
        <ele>1733.439</ele>
        <time>2018-12-27T21:33:45Z</time>
      </trkpt>
      <trkpt lat="36.629440" lon="-111.206180">
        <ele>1732.858</ele>
        <time>2018-12-27T21:34:05Z</time>
      </trkpt>
      <trkpt lat="36.629260" lon="-111.206000">
        <ele>1732.569</ele>
        <time>2018-12-27T21:34:25Z</time>
      </trkpt>
      <trkpt lat="36.629030" lon="-111.205790">
        <ele>1732.004</ele>
        <time>2018-12-27T21:34:45Z</time>
      </trkpt>
      <trkpt lat="36.628910" lon="-111.205680">
        <ele>1732.024</ele>
        <time>2018-12-27T21:35:05Z</time>
      </trkpt>
      <trkpt lat="36.628620" lon="-111.205430">
        <ele>1730.308</ele>
        <time>2018-12-27T21:35:25Z</time>
      </trkpt>
      <trkpt lat="36.628430" lon="-111.205260">
        <ele>1728.569</ele>
        <time>2018-12-27T21:35:45Z</time>
      </trkpt>
      <trkpt lat="36.628180" lon="-111.205050">
        <ele>1727.077</ele>
        <time>2018-12-27T21:36:05Z</time>
      </trkpt>
      <trkpt lat="36.627980" lon="-111.204900">
        <ele>1727.042</ele>
        <time>2018-12-27T21:36:25Z</time>
      </trkpt>
      <trkpt lat="36.627610" lon="-111.204630">
        <ele>1727.013</ele>
        <time>2018-12-27T21:36:45Z</time>
      </trkpt>
      <trkpt lat="36.627210" lon="-111.204340">
        <ele>1726.667</ele>
        <time>2018-12-27T21:37:05Z</time>
      </trkpt>
      <trkpt lat="36.625010" lon="-111.202750">
        <ele>1714.044</ele>
        <time>2018-12-27T21:37:25Z</time>
      </trkpt>
      <trkpt lat="36.624130" lon="-111.202110">
        <ele>1709.059</ele>
        <time>2018-12-27T21:37:45Z</time>
      </trkpt>
      <trkpt lat="36.623880" lon="-111.201930">
        <ele>1708.828</ele>
        <time>2018-12-27T21:38:05Z</time>
      </trkpt>
      <trkpt lat="36.623680" lon="-111.201790">
        <ele>1708.831</ele>
        <time>2018-12-27T21:38:25Z</time>
      </trkpt>
      <trkpt lat="36.623510" lon="-111.201670">
        <ele>1708.661</ele>
        <time>2018-12-27T21:38:45Z</time>
      </trkpt>
      <trkpt lat="36.623290" lon="-111.201510">
        <ele>1708.507</ele>
        <time>2018-12-27T21:39:05Z</time>
      </trkpt>
      <trkpt lat="36.623100" lon="-111.201360">
        <ele>1708.708</ele>
        <time>2018-12-27T21:39:25Z</time>
      </trkpt>
      <trkpt lat="36.622920" lon="-111.201220">
        <ele>1709.186</ele>
        <time>2018-12-27T21:39:45Z</time>
      </trkpt>
      <trkpt lat="36.622670" lon="-111.201000">
        <ele>1709.154</ele>
        <time>2018-12-27T21:40:05Z</time>
      </trkpt>
      <trkpt lat="36.622470" lon="-111.200820">
        <ele>1708.949</ele>
        <time>2018-12-27T21:40:25Z</time>
      </trkpt>
      <trkpt lat="36.622290" lon="-111.200640">
        <ele>1708.840</ele>
        <time>2018-12-27T21:40:45Z</time>
      </trkpt>
      <trkpt lat="36.622120" lon="-111.200450">
        <ele>1708.794</ele>
        <time>2018-12-27T21:41:05Z</time>
      </trkpt>
      <trkpt lat="36.621900" lon="-111.200210">
        <ele>1708.591</ele>
        <time>2018-12-27T21:41:25Z</time>
      </trkpt>
      <trkpt lat="36.621610" lon="-111.199850">
        <ele>1707.816</ele>
        <time>2018-12-27T21:41:45Z</time>
      </trkpt>
      <trkpt lat="36.621250" lon="-111.199360">
        <ele>1707.385</ele>
        <time>2018-12-27T21:42:05Z</time>
      </trkpt>
      <trkpt lat="36.620230" lon="-111.197980">
        <ele>1707.864</ele>
        <time>2018-12-27T21:42:25Z</time>
      </trkpt>
      <trkpt lat="36.619610" lon="-111.197120">
        <ele>1707.106</ele>
        <time>2018-12-27T21:42:45Z</time>
      </trkpt>
      <trkpt lat="36.619140" lon="-111.196470">
        <ele>1704.916</ele>
        <time>2018-12-27T21:43:05Z</time>
      </trkpt>
      <trkpt lat="36.618930" lon="-111.196170">
        <ele>1703.908</ele>
        <time>2018-12-27T21:43:25Z</time>
      </trkpt>
      <trkpt lat="36.618640" lon="-111.195760">
        <ele>1702.659</ele>
        <time>2018-12-27T21:43:45Z</time>
      </trkpt>
      <trkpt lat="36.618390" lon="-111.195410">
        <ele>1702.217</ele>
        <time>2018-12-27T21:44:05Z</time>
      </trkpt>
      <trkpt lat="36.618120" lon="-111.195040">
        <ele>1702.362</ele>
        <time>2018-12-27T21:44:25Z</time>
      </trkpt>
      <trkpt lat="36.617760" lon="-111.194540">
        <ele>1702.433</ele>
        <time>2018-12-27T21:44:45Z</time>
      </trkpt>
      <trkpt lat="36.617500" lon="-111.194180">
        <ele>1702.647</ele>
        <time>2018-12-27T21:45:05Z</time>
      </trkpt>
      <trkpt lat="36.616960" lon="-111.193450">
        <ele>1703.684</ele>
        <time>2018-12-27T21:45:25Z</time>
      </trkpt>
      <trkpt lat="36.616000" lon="-111.192140">
        <ele>1710.819</ele>
        <time>2018-12-27T21:45:45Z</time>
      </trkpt>
      <trkpt lat="36.615780" lon="-111.191840">
        <ele>1711.858</ele>
        <time>2018-12-27T21:46:05Z</time>
      </trkpt>
      <trkpt lat="36.614890" lon="-111.190600">
        <ele>1709.866</ele>
        <time>2018-12-27T21:46:25Z</time>
      </trkpt>
      <trkpt lat="36.614480" lon="-111.190040">
        <ele>1709.829</ele>
        <time>2018-12-27T21:46:45Z</time>
      </trkpt>
      <trkpt lat="36.613920" lon="-111.189260">
        <ele>1708.821</ele>
        <time>2018-12-27T21:47:05Z</time>
      </trkpt>
      <trkpt lat="36.612290" lon="-111.187020">
        <ele>1710.708</ele>
        <time>2018-12-27T21:47:25Z</time>
      </trkpt>
      <trkpt lat="36.611510" lon="-111.185960">
        <ele>1711.539</ele>
        <time>2018-12-27T21:47:45Z</time>
      </trkpt>
      <trkpt lat="36.609530" lon="-111.183220">
        <ele>1714.027</ele>
        <time>2018-12-27T21:48:05Z</time>
      </trkpt>
      <trkpt lat="36.608200" lon="-111.181380">
        <ele>1716.862</ele>
        <time>2018-12-27T21:48:25Z</time>
      </trkpt>
      <trkpt lat="36.606540" lon="-111.179120">
        <ele>1720.433</ele>
        <time>2018-12-27T21:48:45Z</time>
      </trkpt>
      <trkpt lat="36.605920" lon="-111.178260">
        <ele>1721.087</ele>
        <time>2018-12-27T21:49:05Z</time>
      </trkpt>
      <trkpt lat="36.605250" lon="-111.177330">
        <ele>1720.664</ele>
        <time>2018-12-27T21:49:25Z</time>
      </trkpt>
      <trkpt lat="36.604840" lon="-111.176780">
        <ele>1723.549</ele>
        <time>2018-12-27T21:49:45Z</time>
      </trkpt>
      <trkpt lat="36.604160" lon="-111.175850">
        <ele>1726.018</ele>
        <time>2018-12-27T21:50:05Z</time>
      </trkpt>
      <trkpt lat="36.602720" lon="-111.173840">
        <ele>1726.288</ele>
        <time>2018-12-27T21:50:25Z</time>
      </trkpt>
      <trkpt lat="36.602160" lon="-111.173090">
        <ele>1730.224</ele>
        <time>2018-12-27T21:50:45Z</time>
      </trkpt>
      <trkpt lat="36.601170" lon="-111.171730">
        <ele>1733.026</ele>
        <time>2018-12-27T21:51:05Z</time>
      </trkpt>
      <trkpt lat="36.600670" lon="-111.171020">
        <ele>1732.808</ele>
        <time>2018-12-27T21:51:25Z</time>
      </trkpt>
      <trkpt lat="36.593710" lon="-111.161480">
        <ele>1749.331</ele>
        <time>2018-12-27T21:51:45Z</time>
      </trkpt>
      <trkpt lat="36.591940" lon="-111.159040">
        <ele>1741.339</ele>
        <time>2018-12-27T21:52:05Z</time>
      </trkpt>
      <trkpt lat="36.590810" lon="-111.157490">
        <ele>1738.734</ele>
        <time>2018-12-27T21:52:25Z</time>
      </trkpt>
      <trkpt lat="36.589080" lon="-111.155100">
        <ele>1741.715</ele>
        <time>2018-12-27T21:52:45Z</time>
      </trkpt>
      <trkpt lat="36.588460" lon="-111.154250">
        <ele>1742.939</ele>
        <time>2018-12-27T21:53:05Z</time>
      </trkpt>
      <trkpt lat="36.588110" lon="-111.153770">
        <ele>1743.676</ele>
        <time>2018-12-27T21:53:25Z</time>
      </trkpt>
      <trkpt lat="36.586360" lon="-111.151350">
        <ele>1749.941</ele>
        <time>2018-12-27T21:53:45Z</time>
      </trkpt>
      <trkpt lat="36.584900" lon="-111.149350">
        <ele>1754.250</ele>
        <time>2018-12-27T21:54:05Z</time>
      </trkpt>
      <trkpt lat="36.583360" lon="-111.147240">
        <ele>1758.315</ele>
        <time>2018-12-27T21:54:25Z</time>
      </trkpt>
      <trkpt lat="36.582290" lon="-111.145740">
        <ele>1762.965</ele>
        <time>2018-12-27T21:54:45Z</time>
      </trkpt>
      <trkpt lat="36.582070" lon="-111.145410">
        <ele>1763.111</ele>
        <time>2018-12-27T21:55:05Z</time>
      </trkpt>
      <trkpt lat="36.581900" lon="-111.145120">
        <ele>1763.408</ele>
        <time>2018-12-27T21:55:25Z</time>
      </trkpt>
      <trkpt lat="36.581730" lon="-111.144820">
        <ele>1763.884</ele>
        <time>2018-12-27T21:55:45Z</time>
      </trkpt>
      <trkpt lat="36.581600" lon="-111.144550">
        <ele>1764.792</ele>
        <time>2018-12-27T21:56:05Z</time>
      </trkpt>
      <trkpt lat="36.581380" lon="-111.144060">
        <ele>1766.137</ele>
        <time>2018-12-27T21:56:25Z</time>
      </trkpt>
      <trkpt lat="36.581200" lon="-111.143620">
        <ele>1767.548</ele>
        <time>2018-12-27T21:56:45Z</time>
      </trkpt>
      <trkpt lat="36.581130" lon="-111.143440">
        <ele>1768.032</ele>
        <time>2018-12-27T21:57:05Z</time>
      </trkpt>
      <trkpt lat="36.581080" lon="-111.143280">
        <ele>1768.389</ele>
        <time>2018-12-27T21:57:25Z</time>
      </trkpt>
      <trkpt lat="36.580990" lon="-111.143010">
        <ele>1768.524</ele>
        <time>2018-12-27T21:57:45Z</time>
      </trkpt>
      <trkpt lat="36.580910" lon="-111.142760">
        <ele>1768.823</ele>
        <time>2018-12-27T21:58:05Z</time>
      </trkpt>
      <trkpt lat="36.580860" lon="-111.142580">
        <ele>1769.025</ele>
        <time>2018-12-27T21:58:25Z</time>
      </trkpt>
      <trkpt lat="36.580810" lon="-111.142380">
        <ele>1769.126</ele>
        <time>2018-12-27T21:58:45Z</time>
      </trkpt>
      <trkpt lat="36.580590" lon="-111.141450">
        <ele>1769.208</ele>
        <time>2018-12-27T21:59:05Z</time>
      </trkpt>
      <trkpt lat="36.579840" lon="-111.138380">
        <ele>1781.408</ele>
        <time>2018-12-27T21:59:25Z</time>
      </trkpt>
      <trkpt lat="36.579380" lon="-111.136490">
        <ele>1793.145</ele>
        <time>2018-12-27T21:59:45Z</time>
      </trkpt>
      <trkpt lat="36.578740" lon="-111.133830">
        <ele>1798.533</ele>
        <time>2018-12-27T22:00:05Z</time>
      </trkpt>
      <trkpt lat="36.576830" lon="-111.125910">
        <ele>1825.998</ele>
        <time>2018-12-27T22:00:25Z</time>
      </trkpt>
      <trkpt lat="36.576610" lon="-111.125000">
        <ele>1829.499</ele>
        <time>2018-12-27T22:00:45Z</time>
      </trkpt>
      <trkpt lat="36.576430" lon="-111.124280">
        <ele>1831.693</ele>
        <time>2018-12-27T22:01:05Z</time>
      </trkpt>
      <trkpt lat="36.575990" lon="-111.122440">
        <ele>1837.630</ele>
        <time>2018-12-27T22:01:25Z</time>
      </trkpt>
      <trkpt lat="36.575920" lon="-111.122090">
        <ele>1840.235</ele>
        <time>2018-12-27T22:01:45Z</time>
      </trkpt>
      <trkpt lat="36.575870" lon="-111.121810">
        <ele>1841.774</ele>
        <time>2018-12-27T22:02:05Z</time>
      </trkpt>
      <trkpt lat="36.575850" lon="-111.121570">
        <ele>1843.614</ele>
        <time>2018-12-27T22:02:25Z</time>
      </trkpt>
      <trkpt lat="36.575820" lon="-111.121330">
        <ele>1845.954</ele>
        <time>2018-12-27T22:02:45Z</time>
      </trkpt>
      <trkpt lat="36.575810" lon="-111.121140">
        <ele>1847.109</ele>
        <time>2018-12-27T22:03:05Z</time>
      </trkpt>
      <trkpt lat="36.575800" lon="-111.120860">
        <ele>1847.908</ele>
        <time>2018-12-27T22:03:25Z</time>
      </trkpt>
      <trkpt lat="36.575800" lon="-111.120490">
        <ele>1848.054</ele>
        <time>2018-12-27T22:03:45Z</time>
      </trkpt>
      <trkpt lat="36.575810" lon="-111.120320">
        <ele>1848.352</ele>
        <time>2018-12-27T22:04:05Z</time>
      </trkpt>
      <trkpt lat="36.575810" lon="-111.120160">
        <ele>1848.847</ele>
        <time>2018-12-27T22:04:25Z</time>
      </trkpt>
      <trkpt lat="36.575820" lon="-111.120040">
        <ele>1850.198</ele>
        <time>2018-12-27T22:04:45Z</time>
      </trkpt>
      <trkpt lat="36.575840" lon="-111.119910">
        <ele>1851.752</ele>
        <time>2018-12-27T22:05:05Z</time>
      </trkpt>
      <trkpt lat="36.575860" lon="-111.119700">
        <ele>1852.379</ele>
        <time>2018-12-27T22:05:25Z</time>
      </trkpt>
      <trkpt lat="36.575900" lon="-111.119440">
        <ele>1852.464</ele>
        <time>2018-12-27T22:05:45Z</time>
      </trkpt>
      <trkpt lat="36.575940" lon="-111.119210">
        <ele>1852.493</ele>
        <time>2018-12-27T22:06:05Z</time>
      </trkpt>
      <trkpt lat="36.576020" lon="-111.118810">
        <ele>1851.642</ele>
        <time>2018-12-27T22:06:25Z</time>
      </trkpt>
      <trkpt lat="36.576090" lon="-111.118570">
        <ele>1851.022</ele>
        <time>2018-12-27T22:06:45Z</time>
      </trkpt>
      <trkpt lat="36.576150" lon="-111.118350">
        <ele>1850.614</ele>
        <time>2018-12-27T22:07:05Z</time>
      </trkpt>
      <trkpt lat="36.576260" lon="-111.118020">
        <ele>1850.008</ele>
        <time>2018-12-27T22:07:25Z</time>
      </trkpt>
      <trkpt lat="36.576310" lon="-111.117890">
        <ele>1849.927</ele>
        <time>2018-12-27T22:07:45Z</time>
      </trkpt>
      <trkpt lat="36.576360" lon="-111.117750">
        <ele>1849.845</ele>
        <time>2018-12-27T22:08:05Z</time>
      </trkpt>
      <trkpt lat="36.576460" lon="-111.117530">
        <ele>1849.720</ele>
        <time>2018-12-27T22:08:25Z</time>
      </trkpt>
      <trkpt lat="36.576600" lon="-111.117230">
        <ele>1849.761</ele>
        <time>2018-12-27T22:08:45Z</time>
      </trkpt>
      <trkpt lat="36.576730" lon="-111.116990">
        <ele>1849.725</ele>
        <time>2018-12-27T22:09:05Z</time>
      </trkpt>
      <trkpt lat="36.576990" lon="-111.116550">
        <ele>1849.512</ele>
        <time>2018-12-27T22:09:25Z</time>
      </trkpt>
      <trkpt lat="36.577460" lon="-111.115810">
        <ele>1850.117</ele>
        <time>2018-12-27T22:09:45Z</time>
      </trkpt>
      <trkpt lat="36.580810" lon="-111.110560">
        <ele>1835.586</ele>
        <time>2018-12-27T22:10:05Z</time>
      </trkpt>
      <trkpt lat="36.581520" lon="-111.109460">
        <ele>1834.328</ele>
        <time>2018-12-27T22:10:25Z</time>
      </trkpt>
      <trkpt lat="36.581970" lon="-111.108750">
        <ele>1834.289</ele>
        <time>2018-12-27T22:10:45Z</time>
      </trkpt>
      <trkpt lat="36.582240" lon="-111.108320">
        <ele>1834.317</ele>
        <time>2018-12-27T22:11:05Z</time>
      </trkpt>
      <trkpt lat="36.582580" lon="-111.107810">
        <ele>1834.408</ele>
        <time>2018-12-27T22:11:25Z</time>
      </trkpt>
      <trkpt lat="36.582870" lon="-111.107400">
        <ele>1834.875</ele>
        <time>2018-12-27T22:11:45Z</time>
      </trkpt>
      <trkpt lat="36.583100" lon="-111.107080">
        <ele>1835.713</ele>
        <time>2018-12-27T22:12:05Z</time>
      </trkpt>
      <trkpt lat="36.583460" lon="-111.106630">
        <ele>1836.328</ele>
        <time>2018-12-27T22:12:25Z</time>
      </trkpt>
      <trkpt lat="36.583810" lon="-111.106210">
        <ele>1837.389</ele>
        <time>2018-12-27T22:12:45Z</time>
      </trkpt>
      <trkpt lat="36.584250" lon="-111.105720">
        <ele>1838.023</ele>
        <time>2018-12-27T22:13:05Z</time>
      </trkpt>
      <trkpt lat="36.584630" lon="-111.105330">
        <ele>1838.730</ele>
        <time>2018-12-27T22:13:25Z</time>
      </trkpt>
      <trkpt lat="36.584810" lon="-111.105150">
        <ele>1839.445</ele>
        <time>2018-12-27T22:13:45Z</time>
      </trkpt>
      <trkpt lat="36.585130" lon="-111.104850">
        <ele>1841.044</ele>
        <time>2018-12-27T22:14:05Z</time>
      </trkpt>
      <trkpt lat="36.585390" lon="-111.104610">
        <ele>1842.128</ele>
        <time>2018-12-27T22:14:25Z</time>
      </trkpt>
      <trkpt lat="36.585770" lon="-111.104260">
        <ele>1842.589</ele>
        <time>2018-12-27T22:14:45Z</time>
      </trkpt>
      <trkpt lat="36.589520" lon="-111.100930">
        <ele>1851.417</ele>
        <time>2018-12-27T22:15:05Z</time>
      </trkpt>
      <trkpt lat="36.593120" lon="-111.097730">
        <ele>1837.108</ele>
        <time>2018-12-27T22:15:25Z</time>
      </trkpt>
      <trkpt lat="36.593700" lon="-111.097210">
        <ele>1835.455</ele>
        <time>2018-12-27T22:15:45Z</time>
      </trkpt>
      <trkpt lat="36.593720" lon="-111.097150">
        <ele>1835.233</ele>
        <time>2018-12-27T22:16:05Z</time>
      </trkpt>
      <trkpt lat="36.593930" lon="-111.096960">
        <ele>1834.558</ele>
        <time>2018-12-27T22:16:25Z</time>
      </trkpt>
      <trkpt lat="36.594200" lon="-111.096710">
        <ele>1833.319</ele>
        <time>2018-12-27T22:16:45Z</time>
      </trkpt>
      <trkpt lat="36.595330" lon="-111.095660">
        <ele>1829.273</ele>
        <time>2018-12-27T22:17:05Z</time>
      </trkpt>
      <trkpt lat="36.595480" lon="-111.095550">
        <ele>1828.540</ele>
        <time>2018-12-27T22:17:25Z</time>
      </trkpt>
      <trkpt lat="36.595680" lon="-111.095380">
        <ele>1827.455</ele>
        <time>2018-12-27T22:17:45Z</time>
      </trkpt>
      <trkpt lat="36.596140" lon="-111.094960">
        <ele>1825.264</ele>
        <time>2018-12-27T22:18:05Z</time>
      </trkpt>
      <trkpt lat="36.596650" lon="-111.094510">
        <ele>1823.011</ele>
        <time>2018-12-27T22:18:25Z</time>
      </trkpt>
      <trkpt lat="36.596830" lon="-111.094370">
        <ele>1821.721</ele>
        <time>2018-12-27T22:18:45Z</time>
      </trkpt>
      <trkpt lat="36.597010" lon="-111.094210">
        <ele>1820.403</ele>
        <time>2018-12-27T22:19:05Z</time>
      </trkpt>
      <trkpt lat="36.597090" lon="-111.094170">
        <ele>1820.008</ele>
        <time>2018-12-27T22:19:25Z</time>
      </trkpt>
      <trkpt lat="36.597640" lon="-111.093680">
        <ele>1818.434</ele>
        <time>2018-12-27T22:19:45Z</time>
      </trkpt>
      <trkpt lat="36.598230" lon="-111.093170">
        <ele>1815.262</ele>
        <time>2018-12-27T22:20:05Z</time>
      </trkpt>
      <trkpt lat="36.599560" lon="-111.091980">
        <ele>1807.897</ele>
        <time>2018-12-27T22:20:25Z</time>
      </trkpt>
      <trkpt lat="36.600820" lon="-111.090870">
        <ele>1800.568</ele>
        <time>2018-12-27T22:20:45Z</time>
      </trkpt>
      <trkpt lat="36.603500" lon="-111.088490">
        <ele>1788.482</ele>
        <time>2018-12-27T22:21:05Z</time>
      </trkpt>
      <trkpt lat="36.603830" lon="-111.088180">
        <ele>1788.029</ele>
        <time>2018-12-27T22:21:25Z</time>
      </trkpt>
      <trkpt lat="36.604130" lon="-111.087860">
        <ele>1787.574</ele>
        <time>2018-12-27T22:21:45Z</time>
      </trkpt>
      <trkpt lat="36.604220" lon="-111.087760">
        <ele>1787.423</ele>
        <time>2018-12-27T22:22:05Z</time>
      </trkpt>
      <trkpt lat="36.604300" lon="-111.087670">
        <ele>1787.331</ele>
        <time>2018-12-27T22:22:25Z</time>
      </trkpt>
      <trkpt lat="36.604360" lon="-111.087590">
        <ele>1786.861</ele>
        <time>2018-12-27T22:22:45Z</time>
      </trkpt>
      <trkpt lat="36.604420" lon="-111.087510">
        <ele>1786.107</ele>
        <time>2018-12-27T22:23:05Z</time>
      </trkpt>
      <trkpt lat="36.604610" lon="-111.087230">
        <ele>1784.308</ele>
        <time>2018-12-27T22:23:25Z</time>
      </trkpt>
      <trkpt lat="36.604670" lon="-111.087140">
        <ele>1783.846</ele>
        <time>2018-12-27T22:23:45Z</time>
      </trkpt>
      <trkpt lat="36.604800" lon="-111.086930">
        <ele>1782.984</ele>
        <time>2018-12-27T22:24:05Z</time>
      </trkpt>
      <trkpt lat="36.604870" lon="-111.086800">
        <ele>1782.689</ele>
        <time>2018-12-27T22:24:25Z</time>
      </trkpt>
      <trkpt lat="36.604940" lon="-111.086690">
        <ele>1782.340</ele>
        <time>2018-12-27T22:24:45Z</time>
      </trkpt>
      <trkpt lat="36.605020" lon="-111.086530">
        <ele>1781.914</ele>
        <time>2018-12-27T22:25:05Z</time>
      </trkpt>
      <trkpt lat="36.605090" lon="-111.086380">
        <ele>1781.471</ele>
        <time>2018-12-27T22:25:25Z</time>
      </trkpt>
      <trkpt lat="36.605150" lon="-111.086240">
        <ele>1781.026</ele>
        <time>2018-12-27T22:25:45Z</time>
      </trkpt>
      <trkpt lat="36.605280" lon="-111.085960">
        <ele>1779.915</ele>
        <time>2018-12-27T22:26:05Z</time>
      </trkpt>
      <trkpt lat="36.605430" lon="-111.085610">
        <ele>1777.245</ele>
        <time>2018-12-27T22:26:25Z</time>
      </trkpt>
      <trkpt lat="36.605580" lon="-111.085250">
        <ele>1776.047</ele>
        <time>2018-12-27T22:26:45Z</time>
      </trkpt>
      <trkpt lat="36.606930" lon="-111.082000">
        <ele>1763.111</ele>
        <time>2018-12-27T22:27:05Z</time>
      </trkpt>
      <trkpt lat="36.607610" lon="-111.080350">
        <ele>1755.608</ele>
        <time>2018-12-27T22:27:25Z</time>
      </trkpt>
      <trkpt lat="36.607820" lon="-111.079870">
        <ele>1752.737</ele>
        <time>2018-12-27T22:27:45Z</time>
      </trkpt>
      <trkpt lat="36.607980" lon="-111.079500">
        <ele>1751.525</ele>
        <time>2018-12-27T22:28:05Z</time>
      </trkpt>
      <trkpt lat="36.608070" lon="-111.079300">
        <ele>1750.690</ele>
        <time>2018-12-27T22:28:25Z</time>
      </trkpt>
      <trkpt lat="36.608180" lon="-111.079080">
        <ele>1749.541</ele>
        <time>2018-12-27T22:28:45Z</time>
      </trkpt>
      <trkpt lat="36.608250" lon="-111.078950">
        <ele>1748.995</ele>
        <time>2018-12-27T22:29:05Z</time>
      </trkpt>
      <trkpt lat="36.608420" lon="-111.078650">
        <ele>1747.012</ele>
        <time>2018-12-27T22:29:25Z</time>
      </trkpt>
      <trkpt lat="36.608580" lon="-111.078380">
        <ele>1744.927</ele>
        <time>2018-12-27T22:29:45Z</time>
      </trkpt>
      <trkpt lat="36.608750" lon="-111.078110">
        <ele>1744.546</ele>
        <time>2018-12-27T22:30:05Z</time>
      </trkpt>
      <trkpt lat="36.609070" lon="-111.077610">
        <ele>1742.926</ele>
        <time>2018-12-27T22:30:25Z</time>
      </trkpt>
      <trkpt lat="36.609130" lon="-111.077530">
        <ele>1742.647</ele>
        <time>2018-12-27T22:30:45Z</time>
      </trkpt>
      <trkpt lat="36.609560" lon="-111.076850">
        <ele>1739.311</ele>
        <time>2018-12-27T22:31:05Z</time>
      </trkpt>
      <trkpt lat="36.611900" lon="-111.073220">
        <ele>1754.508</ele>
        <time>2018-12-27T22:31:25Z</time>
      </trkpt>
      <trkpt lat="36.612120" lon="-111.072870">
        <ele>1755.065</ele>
        <time>2018-12-27T22:31:45Z</time>
      </trkpt>
      <trkpt lat="36.612270" lon="-111.072620">
        <ele>1755.383</ele>
        <time>2018-12-27T22:32:05Z</time>
      </trkpt>
      <trkpt lat="36.612380" lon="-111.072450">
        <ele>1755.838</ele>
        <time>2018-12-27T22:32:25Z</time>
      </trkpt>
      <trkpt lat="36.612430" lon="-111.072350">
        <ele>1756.099</ele>
        <time>2018-12-27T22:32:45Z</time>
      </trkpt>
      <trkpt lat="36.612480" lon="-111.072260">
        <ele>1756.673</ele>
        <time>2018-12-27T22:33:05Z</time>
      </trkpt>
      <trkpt lat="36.612560" lon="-111.072100">
        <ele>1757.510</ele>
        <time>2018-12-27T22:33:25Z</time>
      </trkpt>
      <trkpt lat="36.612670" lon="-111.071870">
        <ele>1758.695</ele>
        <time>2018-12-27T22:33:45Z</time>
      </trkpt>
      <trkpt lat="36.612720" lon="-111.071760">
        <ele>1759.274</ele>
        <time>2018-12-27T22:34:05Z</time>
      </trkpt>
      <trkpt lat="36.612770" lon="-111.071650">
        <ele>1759.839</ele>
        <time>2018-12-27T22:34:25Z</time>
      </trkpt>
      <trkpt lat="36.612860" lon="-111.071430">
        <ele>1760.901</ele>
        <time>2018-12-27T22:34:45Z</time>
      </trkpt>
      <trkpt lat="36.612960" lon="-111.071150">
        <ele>1762.121</ele>
        <time>2018-12-27T22:35:05Z</time>
      </trkpt>
      <trkpt lat="36.613030" lon="-111.070910">
        <ele>1763.208</ele>
        <time>2018-12-27T22:35:25Z</time>
      </trkpt>
      <trkpt lat="36.613100" lon="-111.070670">
        <ele>1764.246</ele>
        <time>2018-12-27T22:35:45Z</time>
      </trkpt>
      <trkpt lat="36.613160" lon="-111.070420">
        <ele>1765.094</ele>
        <time>2018-12-27T22:36:05Z</time>
      </trkpt>
      <trkpt lat="36.613220" lon="-111.070110">
        <ele>1766.229</ele>
        <time>2018-12-27T22:36:25Z</time>
      </trkpt>
      <trkpt lat="36.613260" lon="-111.069870">
        <ele>1766.840</ele>
        <time>2018-12-27T22:36:45Z</time>
      </trkpt>
      <trkpt lat="36.613290" lon="-111.069610">
        <ele>1767.624</ele>
        <time>2018-12-27T22:37:05Z</time>
      </trkpt>
      <trkpt lat="36.613320" lon="-111.069380">
        <ele>1768.751</ele>
        <time>2018-12-27T22:37:25Z</time>
      </trkpt>
      <trkpt lat="36.613340" lon="-111.069150">
        <ele>1769.976</ele>
        <time>2018-12-27T22:37:45Z</time>
      </trkpt>
      <trkpt lat="36.613350" lon="-111.068810">
        <ele>1771.815</ele>
        <time>2018-12-27T22:38:05Z</time>
      </trkpt>
      <trkpt lat="36.613340" lon="-111.068350">
        <ele>1772.825</ele>
        <time>2018-12-27T22:38:25Z</time>
      </trkpt>
      <trkpt lat="36.613340" lon="-111.067910">
        <ele>1772.826</ele>
        <time>2018-12-27T22:38:45Z</time>
      </trkpt>
      <trkpt lat="36.613300" lon="-111.066370">
        <ele>1772.808</ele>
        <time>2018-12-27T22:39:05Z</time>
      </trkpt>
      <trkpt lat="36.613210" lon="-111.062840">
        <ele>1780.008</ele>
        <time>2018-12-27T22:39:25Z</time>
      </trkpt>
      <trkpt lat="36.613160" lon="-111.060920">
        <ele>1785.675</ele>
        <time>2018-12-27T22:39:45Z</time>
      </trkpt>
      <trkpt lat="36.613150" lon="-111.060520">
        <ele>1786.963</ele>
        <time>2018-12-27T22:40:05Z</time>
      </trkpt>
      <trkpt lat="36.613100" lon="-111.058580">
        <ele>1790.328</ele>
        <time>2018-12-27T22:40:25Z</time>
      </trkpt>
      <trkpt lat="36.613060" lon="-111.057150">
        <ele>1794.869</ele>
        <time>2018-12-27T22:40:45Z</time>
      </trkpt>
      <trkpt lat="36.613030" lon="-111.055800">
        <ele>1798.233</ele>
        <time>2018-12-27T22:41:05Z</time>
      </trkpt>
      <trkpt lat="36.612980" lon="-111.054080">
        <ele>1802.230</ele>
        <time>2018-12-27T22:41:25Z</time>
      </trkpt>
      <trkpt lat="36.612910" lon="-111.051330">
        <ele>1808.885</ele>
        <time>2018-12-27T22:41:45Z</time>
      </trkpt>
      <trkpt lat="36.612880" lon="-111.050320">
        <ele>1809.694</ele>
        <time>2018-12-27T22:42:05Z</time>
      </trkpt>
      <trkpt lat="36.612450" lon="-111.033760">
        <ele>1848.332</ele>
        <time>2018-12-27T22:42:25Z</time>
      </trkpt>
      <trkpt lat="36.612380" lon="-111.031440">
        <ele>1853.592</ele>
        <time>2018-12-27T22:42:45Z</time>
      </trkpt>
      <trkpt lat="36.612310" lon="-111.028710">
        <ele>1842.211</ele>
        <time>2018-12-27T22:43:05Z</time>
      </trkpt>
      <trkpt lat="36.612270" lon="-111.027290">
        <ele>1842.008</ele>
        <time>2018-12-27T22:43:25Z</time>
      </trkpt>
      <trkpt lat="36.612220" lon="-111.025340">
        <ele>1842.896</ele>
        <time>2018-12-27T22:43:45Z</time>
      </trkpt>
      <trkpt lat="36.612150" lon="-111.022640">
        <ele>1848.094</ele>
        <time>2018-12-27T22:44:05Z</time>
      </trkpt>
      <trkpt lat="36.612090" lon="-111.020520">
        <ele>1851.729</ele>
        <time>2018-12-27T22:44:25Z</time>
      </trkpt>
      <trkpt lat="36.612060" lon="-111.019500">
        <ele>1854.360</ele>
        <time>2018-12-27T22:44:45Z</time>
      </trkpt>
      <trkpt lat="36.612050" lon="-111.019090">
        <ele>1855.654</ele>
        <time>2018-12-27T22:45:05Z</time>
      </trkpt>
      <trkpt lat="36.612040" lon="-111.018620">
        <ele>1856.741</ele>
        <time>2018-12-27T22:45:25Z</time>
      </trkpt>
      <trkpt lat="36.612020" lon="-111.017970">
        <ele>1857.836</ele>
        <time>2018-12-27T22:45:45Z</time>
      </trkpt>
      <trkpt lat="36.612000" lon="-111.017370">
        <ele>1858.775</ele>
        <time>2018-12-27T22:46:05Z</time>
      </trkpt>
      <trkpt lat="36.611980" lon="-111.016490">
        <ele>1860.252</ele>
        <time>2018-12-27T22:46:25Z</time>
      </trkpt>
      <trkpt lat="36.611980" lon="-111.016170">
        <ele>1860.353</ele>
        <time>2018-12-27T22:46:45Z</time>
      </trkpt>
      <trkpt lat="36.611990" lon="-111.015800">
        <ele>1860.308</ele>
        <time>2018-12-27T22:47:05Z</time>
      </trkpt>
      <trkpt lat="36.612000" lon="-111.015510">
        <ele>1860.308</ele>
        <time>2018-12-27T22:47:25Z</time>
      </trkpt>
      <trkpt lat="36.612010" lon="-111.015260">
        <ele>1860.378</ele>
        <time>2018-12-27T22:47:45Z</time>
      </trkpt>
      <trkpt lat="36.612020" lon="-111.015130">
        <ele>1860.316</ele>
        <time>2018-12-27T22:48:05Z</time>
      </trkpt>
      <trkpt lat="36.612040" lon="-111.014870">
        <ele>1861.181</ele>
        <time>2018-12-27T22:48:25Z</time>
      </trkpt>
      <trkpt lat="36.612060" lon="-111.014620">
        <ele>1861.722</ele>
        <time>2018-12-27T22:48:45Z</time>
      </trkpt>
      <trkpt lat="36.612110" lon="-111.014250">
        <ele>1862.166</ele>
        <time>2018-12-27T22:49:05Z</time>
      </trkpt>
      <trkpt lat="36.612250" lon="-111.013150">
        <ele>1860.963</ele>
        <time>2018-12-27T22:49:25Z</time>
      </trkpt>
      <trkpt lat="36.612280" lon="-111.012950">
        <ele>1860.618</ele>
        <time>2018-12-27T22:49:45Z</time>
      </trkpt>
      <trkpt lat="36.612320" lon="-111.012630">
        <ele>1860.687</ele>
        <time>2018-12-27T22:50:05Z</time>
      </trkpt>
      <trkpt lat="36.612350" lon="-111.012430">
        <ele>1860.594</ele>
        <time>2018-12-27T22:50:25Z</time>
      </trkpt>
      <trkpt lat="36.612540" lon="-111.010940">
        <ele>1860.657</ele>
        <time>2018-12-27T22:50:45Z</time>
      </trkpt>
      <trkpt lat="36.612660" lon="-111.010080">
        <ele>1860.822</ele>
        <time>2018-12-27T22:51:05Z</time>
      </trkpt>
      <trkpt lat="36.612880" lon="-111.008330">
        <ele>1865.108</ele>
        <time>2018-12-27T22:51:25Z</time>
      </trkpt>
      <trkpt lat="36.613010" lon="-111.007330">
        <ele>1866.352</ele>
        <time>2018-12-27T22:51:45Z</time>
      </trkpt>
      <trkpt lat="36.613200" lon="-111.005920">
        <ele>1867.310</ele>
        <time>2018-12-27T22:52:05Z</time>
      </trkpt>
      <trkpt lat="36.613410" lon="-111.004320">
        <ele>1869.585</ele>
        <time>2018-12-27T22:52:25Z</time>
      </trkpt>
      <trkpt lat="36.613560" lon="-111.003170">
        <ele>1870.626</ele>
        <time>2018-12-27T22:52:45Z</time>
      </trkpt>
      <trkpt lat="36.613710" lon="-111.002010">
        <ele>1871.960</ele>
        <time>2018-12-27T22:53:05Z</time>
      </trkpt>
      <trkpt lat="36.613970" lon="-111.000020">
        <ele>1873.247</ele>
        <time>2018-12-27T22:53:25Z</time>
      </trkpt>
      <trkpt lat="36.614110" lon="-110.998940">
        <ele>1875.322</ele>
        <time>2018-12-27T22:53:45Z</time>
      </trkpt>
      <trkpt lat="36.614250" lon="-110.997820">
        <ele>1878.261</ele>
        <time>2018-12-27T22:54:05Z</time>
      </trkpt>
      <trkpt lat="36.614400" lon="-110.996700">
        <ele>1879.511</ele>
        <time>2018-12-27T22:54:25Z</time>
      </trkpt>
      <trkpt lat="36.614460" lon="-110.996240">
        <ele>1878.521</ele>
        <time>2018-12-27T22:54:45Z</time>
      </trkpt>
      <trkpt lat="36.614640" lon="-110.994940">
        <ele>1873.303</ele>
        <time>2018-12-27T22:55:05Z</time>
      </trkpt>
      <trkpt lat="36.614780" lon="-110.994050">
        <ele>1866.408</ele>
        <time>2018-12-27T22:55:25Z</time>
      </trkpt>
      <trkpt lat="36.614780" lon="-110.993990">
        <ele>1866.554</ele>
        <time>2018-12-27T22:55:45Z</time>
      </trkpt>
      <trkpt lat="36.614870" lon="-110.993220">
        <ele>1875.732</ele>
        <time>2018-12-27T22:56:05Z</time>
      </trkpt>
      <trkpt lat="36.614930" lon="-110.992680">
        <ele>1879.387</ele>
        <time>2018-12-27T22:56:25Z</time>
      </trkpt>
      <trkpt lat="36.614950" lon="-110.992550">
        <ele>1879.678</ele>
        <time>2018-12-27T22:56:45Z</time>
      </trkpt>
      <trkpt lat="36.615020" lon="-110.991980">
        <ele>1880.582</ele>
        <time>2018-12-27T22:57:05Z</time>
      </trkpt>
      <trkpt lat="36.615370" lon="-110.989350">
        <ele>1882.559</ele>
        <time>2018-12-27T22:57:25Z</time>
      </trkpt>
      <trkpt lat="36.615430" lon="-110.988840">
        <ele>1882.464</ele>
        <time>2018-12-27T22:57:45Z</time>
      </trkpt>
      <trkpt lat="36.615470" lon="-110.988580">
        <ele>1882.243</ele>
        <time>2018-12-27T22:58:05Z</time>
      </trkpt>
      <trkpt lat="36.615590" lon="-110.987660">
        <ele>1882.084</ele>
        <time>2018-12-27T22:58:25Z</time>
      </trkpt>
      <trkpt lat="36.616020" lon="-110.984360">
        <ele>1884.907</ele>
        <time>2018-12-27T22:58:45Z</time>
      </trkpt>
      <trkpt lat="36.617660" lon="-110.971790">
        <ele>1888.817</ele>
        <time>2018-12-27T22:59:05Z</time>
      </trkpt>
      <trkpt lat="36.617740" lon="-110.971120">
        <ele>1889.308</ele>
        <time>2018-12-27T22:59:25Z</time>
      </trkpt>
      <trkpt lat="36.617780" lon="-110.970670">
        <ele>1890.021</ele>
        <time>2018-12-27T22:59:45Z</time>
      </trkpt>
      <trkpt lat="36.617840" lon="-110.969830">
        <ele>1891.249</ele>
        <time>2018-12-27T23:00:05Z</time>
      </trkpt>
      <trkpt lat="36.617870" lon="-110.968890">
        <ele>1889.864</ele>
        <time>2018-12-27T23:00:25Z</time>
      </trkpt>
      <trkpt lat="36.617870" lon="-110.968540">
        <ele>1889.335</ele>
        <time>2018-12-27T23:00:45Z</time>
      </trkpt>
      <trkpt lat="36.617870" lon="-110.967920">
        <ele>1889.019</ele>
        <time>2018-12-27T23:01:05Z</time>
      </trkpt>
      <trkpt lat="36.617850" lon="-110.967530">
        <ele>1889.096</ele>
        <time>2018-12-27T23:01:25Z</time>
      </trkpt>
      <trkpt lat="36.617840" lon="-110.967240">
        <ele>1889.221</ele>
        <time>2018-12-27T23:01:45Z</time>
      </trkpt>
      <trkpt lat="36.617830" lon="-110.967010">
        <ele>1889.330</ele>
        <time>2018-12-27T23:02:05Z</time>
      </trkpt>
      <trkpt lat="36.617490" lon="-110.962370">
        <ele>1878.092</ele>
        <time>2018-12-27T23:02:25Z</time>
      </trkpt>
      <trkpt lat="36.616800" lon="-110.952770">
        <ele>1910.173</ele>
        <time>2018-12-27T23:02:45Z</time>
      </trkpt>
      <trkpt lat="36.616390" lon="-110.947100">
        <ele>1919.520</ele>
        <time>2018-12-27T23:03:05Z</time>
      </trkpt>
      <trkpt lat="36.616330" lon="-110.946330">
        <ele>1921.108</ele>
        <time>2018-12-27T23:03:25Z</time>
      </trkpt>
      <trkpt lat="36.616290" lon="-110.945740">
        <ele>1922.442</ele>
        <time>2018-12-27T23:03:45Z</time>
      </trkpt>
      <trkpt lat="36.616160" lon="-110.943870">
        <ele>1925.570</ele>
        <time>2018-12-27T23:04:05Z</time>
      </trkpt>
      <trkpt lat="36.615880" lon="-110.940160">
        <ele>1931.195</ele>
        <time>2018-12-27T23:04:25Z</time>
      </trkpt>
      <trkpt lat="36.615770" lon="-110.938620">
        <ele>1933.176</ele>
        <time>2018-12-27T23:04:45Z</time>
      </trkpt>
      <trkpt lat="36.615690" lon="-110.937510">
        <ele>1934.390</ele>
        <time>2018-12-27T23:05:05Z</time>
      </trkpt>
      <trkpt lat="36.615580" lon="-110.936070">
        <ele>1935.967</ele>
        <time>2018-12-27T23:05:25Z</time>
      </trkpt>
      <trkpt lat="36.615540" lon="-110.935710">
        <ele>1936.372</ele>
        <time>2018-12-27T23:05:45Z</time>
      </trkpt>
      <trkpt lat="36.615490" lon="-110.935330">
        <ele>1936.811</ele>
        <time>2018-12-27T23:06:05Z</time>
      </trkpt>
      <trkpt lat="36.615360" lon="-110.934410">
        <ele>1938.371</ele>
        <time>2018-12-27T23:06:25Z</time>
      </trkpt>
      <trkpt lat="36.615070" lon="-110.932490">
        <ele>1942.841</ele>
        <time>2018-12-27T23:06:45Z</time>
      </trkpt>
      <trkpt lat="36.614900" lon="-110.931410">
        <ele>1940.915</ele>
        <time>2018-12-27T23:07:05Z</time>
      </trkpt>
      <trkpt lat="36.614800" lon="-110.930770">
        <ele>1929.508</ele>
        <time>2018-12-27T23:07:25Z</time>
      </trkpt>
      <trkpt lat="36.614770" lon="-110.930550">
        <ele>1927.050</ele>
        <time>2018-12-27T23:07:45Z</time>
      </trkpt>
      <trkpt lat="36.614750" lon="-110.930450">
        <ele>1927.018</ele>
        <time>2018-12-27T23:08:05Z</time>
      </trkpt>
      <trkpt lat="36.614700" lon="-110.930100">
        <ele>1935.813</ele>
        <time>2018-12-27T23:08:25Z</time>
      </trkpt>
      <trkpt lat="36.614600" lon="-110.929360">
        <ele>1951.984</ele>
        <time>2018-12-27T23:08:45Z</time>
      </trkpt>
      <trkpt lat="36.614450" lon="-110.928420">
        <ele>1951.188</ele>
        <time>2018-12-27T23:09:05Z</time>
      </trkpt>
      <trkpt lat="36.614320" lon="-110.927540">
        <ele>1949.415</ele>
        <time>2018-12-27T23:09:25Z</time>
      </trkpt>
      <trkpt lat="36.614280" lon="-110.927310">
        <ele>1949.120</ele>
        <time>2018-12-27T23:09:45Z</time>
      </trkpt>
      <trkpt lat="36.614230" lon="-110.927010">
        <ele>1948.829</ele>
        <time>2018-12-27T23:10:05Z</time>
      </trkpt>
      <trkpt lat="36.614170" lon="-110.926670">
        <ele>1948.643</ele>
        <time>2018-12-27T23:10:25Z</time>
      </trkpt>
      <trkpt lat="36.614110" lon="-110.926390">
        <ele>1948.664</ele>
        <time>2018-12-27T23:10:45Z</time>
      </trkpt>
      <trkpt lat="36.614040" lon="-110.926130">
        <ele>1948.710</ele>
        <time>2018-12-27T23:11:05Z</time>
      </trkpt>
      <trkpt lat="36.613980" lon="-110.925930">
        <ele>1948.808</ele>
        <time>2018-12-27T23:11:25Z</time>
      </trkpt>
      <trkpt lat="36.613910" lon="-110.925720">
        <ele>1948.987</ele>
        <time>2018-12-27T23:11:45Z</time>
      </trkpt>
      <trkpt lat="36.613830" lon="-110.925500">
        <ele>1949.255</ele>
        <time>2018-12-27T23:12:05Z</time>
      </trkpt>
      <trkpt lat="36.613740" lon="-110.925310">
        <ele>1949.690</ele>
        <time>2018-12-27T23:12:25Z</time>
      </trkpt>
      <trkpt lat="36.613600" lon="-110.925020">
        <ele>1950.361</ele>
        <time>2018-12-27T23:12:45Z</time>
      </trkpt>
      <trkpt lat="36.613470" lon="-110.924800">
        <ele>1951.265</ele>
        <time>2018-12-27T23:13:05Z</time>
      </trkpt>
      <trkpt lat="36.613340" lon="-110.924600">
        <ele>1952.092</ele>
        <time>2018-12-27T23:13:25Z</time>
      </trkpt>
      <trkpt lat="36.613080" lon="-110.924250">
        <ele>1953.377</ele>
        <time>2018-12-27T23:13:45Z</time>
      </trkpt>
      <trkpt lat="36.612750" lon="-110.923870">
        <ele>1954.616</ele>
        <time>2018-12-27T23:14:05Z</time>
      </trkpt>
      <trkpt lat="36.612470" lon="-110.923550">
        <ele>1955.788</ele>
        <time>2018-12-27T23:14:25Z</time>
      </trkpt>
      <trkpt lat="36.612110" lon="-110.923150">
        <ele>1957.024</ele>
        <time>2018-12-27T23:14:45Z</time>
      </trkpt>
      <trkpt lat="36.611820" lon="-110.922820">
        <ele>1957.926</ele>
        <time>2018-12-27T23:15:05Z</time>
      </trkpt>
      <trkpt lat="36.611610" lon="-110.922600">
        <ele>1958.808</ele>
        <time>2018-12-27T23:15:25Z</time>
      </trkpt>
      <trkpt lat="36.611340" lon="-110.922360">
        <ele>1960.381</ele>
        <time>2018-12-27T23:15:45Z</time>
      </trkpt>
      <trkpt lat="36.611150" lon="-110.922200">
        <ele>1961.479</ele>
        <time>2018-12-27T23:16:05Z</time>
      </trkpt>
      <trkpt lat="36.610930" lon="-110.922040">
        <ele>1962.494</ele>
        <time>2018-12-27T23:16:25Z</time>
      </trkpt>
      <trkpt lat="36.610760" lon="-110.921940">
        <ele>1962.735</ele>
        <time>2018-12-27T23:16:45Z</time>
      </trkpt>
      <trkpt lat="36.610590" lon="-110.921840">
        <ele>1962.399</ele>
        <time>2018-12-27T23:17:05Z</time>
      </trkpt>
      <trkpt lat="36.610290" lon="-110.921700">
        <ele>1961.416</ele>
        <time>2018-12-27T23:17:25Z</time>
      </trkpt>
      <trkpt lat="36.609880" lon="-110.921560">
        <ele>1960.121</ele>
        <time>2018-12-27T23:17:45Z</time>
      </trkpt>
      <trkpt lat="36.609200" lon="-110.921380">
        <ele>1958.270</ele>
        <time>2018-12-27T23:18:05Z</time>
      </trkpt>
      <trkpt lat="36.608860" lon="-110.921300">
        <ele>1956.749</ele>
        <time>2018-12-27T23:18:25Z</time>
      </trkpt>
      <trkpt lat="36.607810" lon="-110.921040">
        <ele>1952.402</ele>
        <time>2018-12-27T23:18:45Z</time>
      </trkpt>
      <trkpt lat="36.606340" lon="-110.920680">
        <ele>1965.622</ele>
        <time>2018-12-27T23:19:05Z</time>
      </trkpt>
      <trkpt lat="36.606070" lon="-110.920620">
        <ele>1967.308</ele>
        <time>2018-12-27T23:19:25Z</time>
      </trkpt>
      <trkpt lat="36.605810" lon="-110.920550">
        <ele>1969.247</ele>
        <time>2018-12-27T23:19:45Z</time>
      </trkpt>
      <trkpt lat="36.605530" lon="-110.920460">
        <ele>1971.775</ele>
        <time>2018-12-27T23:20:05Z</time>
      </trkpt>
      <trkpt lat="36.605360" lon="-110.920390">
        <ele>1972.160</ele>
        <time>2018-12-27T23:20:25Z</time>
      </trkpt>
      <trkpt lat="36.605210" lon="-110.920310">
        <ele>1970.751</ele>
        <time>2018-12-27T23:20:45Z</time>
      </trkpt>
      <trkpt lat="36.605020" lon="-110.920200">
        <ele>1967.535</ele>
        <time>2018-12-27T23:21:05Z</time>
      </trkpt>
      <trkpt lat="36.604890" lon="-110.920110">
        <ele>1966.022</ele>
        <time>2018-12-27T23:21:25Z</time>
      </trkpt>
      <trkpt lat="36.604760" lon="-110.920030">
        <ele>1963.247</ele>
        <time>2018-12-27T23:21:45Z</time>
      </trkpt>
      <trkpt lat="36.604610" lon="-110.919910">
        <ele>1960.236</ele>
        <time>2018-12-27T23:22:05Z</time>
      </trkpt>
      <trkpt lat="36.604470" lon="-110.919780">
        <ele>1957.112</ele>
        <time>2018-12-27T23:22:25Z</time>
      </trkpt>
      <trkpt lat="36.604310" lon="-110.919640">
        <ele>1953.132</ele>
        <time>2018-12-27T23:22:45Z</time>
      </trkpt>
      <trkpt lat="36.604130" lon="-110.919450">
        <ele>1946.705</ele>
        <time>2018-12-27T23:23:05Z</time>
      </trkpt>
      <trkpt lat="36.603960" lon="-110.919240">
        <ele>1940.008</ele>
        <time>2018-12-27T23:23:25Z</time>
      </trkpt>
      <trkpt lat="36.603800" lon="-110.919030">
        <ele>1940.984</ele>
        <time>2018-12-27T23:23:45Z</time>
      </trkpt>
      <trkpt lat="36.603630" lon="-110.918810">
        <ele>1940.772</ele>
        <time>2018-12-27T23:24:05Z</time>
      </trkpt>
      <trkpt lat="36.603500" lon="-110.918610">
        <ele>1938.777</ele>
        <time>2018-12-27T23:24:25Z</time>
      </trkpt>
      <trkpt lat="36.603340" lon="-110.918380">
        <ele>1944.078</ele>
        <time>2018-12-27T23:24:45Z</time>
      </trkpt>
      <trkpt lat="36.603210" lon="-110.918200">
        <ele>1948.182</ele>
        <time>2018-12-27T23:25:05Z</time>
      </trkpt>
      <trkpt lat="36.603130" lon="-110.918070">
        <ele>1943.019</ele>
        <time>2018-12-27T23:25:25Z</time>
      </trkpt>
      <trkpt lat="36.603050" lon="-110.917960">
        <ele>1937.244</ele>
        <time>2018-12-27T23:25:45Z</time>
      </trkpt>
      <trkpt lat="36.602970" lon="-110.917810">
        <ele>1928.743</ele>
        <time>2018-12-27T23:26:05Z</time>
      </trkpt>
      <trkpt lat="36.602900" lon="-110.917690">
        <ele>1921.431</ele>
        <time>2018-12-27T23:26:25Z</time>
      </trkpt>
      <trkpt lat="36.602820" lon="-110.917540">
        <ele>1915.261</ele>
        <time>2018-12-27T23:26:45Z</time>
      </trkpt>
      <trkpt lat="36.602700" lon="-110.917360">
        <ele>1913.407</ele>
        <time>2018-12-27T23:27:05Z</time>
      </trkpt>
      <trkpt lat="36.602590" lon="-110.917220">
        <ele>1920.008</ele>
        <time>2018-12-27T23:27:25Z</time>
      </trkpt>
      <trkpt lat="36.602510" lon="-110.917130">
        <ele>1927.016</ele>
        <time>2018-12-27T23:27:45Z</time>
      </trkpt>
      <trkpt lat="36.602450" lon="-110.917060">
        <ele>1933.144</ele>
        <time>2018-12-27T23:28:05Z</time>
      </trkpt>
      <trkpt lat="36.602330" lon="-110.916900">
        <ele>1940.529</ele>
        <time>2018-12-27T23:28:25Z</time>
      </trkpt>
      <trkpt lat="36.601960" lon="-110.916380">
        <ele>1947.940</ele>
        <time>2018-12-27T23:28:45Z</time>
      </trkpt>
      <trkpt lat="36.601360" lon="-110.915530">
        <ele>1964.154</ele>
        <time>2018-12-27T23:29:05Z</time>
      </trkpt>
      <trkpt lat="36.601020" lon="-110.915050">
        <ele>1966.431</ele>
        <time>2018-12-27T23:29:25Z</time>
      </trkpt>
      <trkpt lat="36.600800" lon="-110.914750">
        <ele>1966.966</ele>
        <time>2018-12-27T23:29:45Z</time>
      </trkpt>
      <trkpt lat="36.600600" lon="-110.914500">
        <ele>1967.575</ele>
        <time>2018-12-27T23:30:05Z</time>
      </trkpt>
      <trkpt lat="36.600480" lon="-110.914370">
        <ele>1968.085</ele>
        <time>2018-12-27T23:30:25Z</time>
      </trkpt>
      <trkpt lat="36.600360" lon="-110.914240">
        <ele>1968.489</ele>
        <time>2018-12-27T23:30:45Z</time>
      </trkpt>
      <trkpt lat="36.600180" lon="-110.914060">
        <ele>1969.217</ele>
        <time>2018-12-27T23:31:05Z</time>
      </trkpt>
      <trkpt lat="36.600060" lon="-110.913950">
        <ele>1969.708</ele>
        <time>2018-12-27T23:31:25Z</time>
      </trkpt>
      <trkpt lat="36.599890" lon="-110.913810">
        <ele>1970.671</ele>
        <time>2018-12-27T23:31:45Z</time>
      </trkpt>
      <trkpt lat="36.599690" lon="-110.913660">
        <ele>1971.739</ele>
        <time>2018-12-27T23:32:05Z</time>
      </trkpt>
      <trkpt lat="36.599290" lon="-110.913400">
        <ele>1973.824</ele>
        <time>2018-12-27T23:32:25Z</time>
      </trkpt>
      <trkpt lat="36.598350" lon="-110.912800">
        <ele>1973.485</ele>
        <time>2018-12-27T23:32:45Z</time>
      </trkpt>
      <trkpt lat="36.597810" lon="-110.912440">
        <ele>1970.669</ele>
        <time>2018-12-27T23:33:05Z</time>
      </trkpt>
      <trkpt lat="36.597800" lon="-110.912440">
        <ele>1970.646</ele>
        <time>2018-12-27T23:33:25Z</time>
      </trkpt>
      <trkpt lat="36.597250" lon="-110.912050">
        <ele>1967.671</ele>
        <time>2018-12-27T23:33:45Z</time>
      </trkpt>
      <trkpt lat="36.597160" lon="-110.911980">
        <ele>1968.050</ele>
        <time>2018-12-27T23:34:05Z</time>
      </trkpt>
      <trkpt lat="36.597080" lon="-110.911910">
        <ele>1968.438</ele>
        <time>2018-12-27T23:34:25Z</time>
      </trkpt>
      <trkpt lat="36.596990" lon="-110.911830">
        <ele>1969.770</ele>
        <time>2018-12-27T23:34:45Z</time>
      </trkpt>
      <trkpt lat="36.596860" lon="-110.911720">
        <ele>1972.217</ele>
        <time>2018-12-27T23:35:05Z</time>
      </trkpt>
      <trkpt lat="36.596730" lon="-110.911580">
        <ele>1973.908</ele>
        <time>2018-12-27T23:35:25Z</time>
      </trkpt>
      <trkpt lat="36.596630" lon="-110.911470">
        <ele>1975.016</ele>
        <time>2018-12-27T23:35:45Z</time>
      </trkpt>
      <trkpt lat="36.596510" lon="-110.911310">
        <ele>1975.524</ele>
        <time>2018-12-27T23:36:05Z</time>
      </trkpt>
      <trkpt lat="36.596380" lon="-110.911140">
        <ele>1974.479</ele>
        <time>2018-12-27T23:36:25Z</time>
      </trkpt>
      <trkpt lat="36.596260" lon="-110.910960">
        <ele>1973.250</ele>
        <time>2018-12-27T23:36:45Z</time>
      </trkpt>
      <trkpt lat="36.596150" lon="-110.910770">
        <ele>1973.774</ele>
        <time>2018-12-27T23:37:05Z</time>
      </trkpt>
      <trkpt lat="36.596050" lon="-110.910590">
        <ele>1975.271</ele>
        <time>2018-12-27T23:37:25Z</time>
      </trkpt>
      <trkpt lat="36.595950" lon="-110.910400">
        <ele>1976.396</ele>
        <time>2018-12-27T23:37:45Z</time>
      </trkpt>
      <trkpt lat="36.595840" lon="-110.910160">
        <ele>1978.095</ele>
        <time>2018-12-27T23:38:05Z</time>
      </trkpt>
      <trkpt lat="36.595740" lon="-110.909910">
        <ele>1981.541</ele>
        <time>2018-12-27T23:38:25Z</time>
      </trkpt>
      <trkpt lat="36.595710" lon="-110.909810">
        <ele>1982.381</ele>
        <time>2018-12-27T23:38:45Z</time>
      </trkpt>
      <trkpt lat="36.595660" lon="-110.909650">
        <ele>1982.209</ele>
        <time>2018-12-27T23:39:05Z</time>
      </trkpt>
      <trkpt lat="36.595590" lon="-110.909430">
        <ele>1981.008</ele>
        <time>2018-12-27T23:39:25Z</time>
      </trkpt>
      <trkpt lat="36.595340" lon="-110.908520">
        <ele>1997.077</ele>
        <time>2018-12-27T23:39:45Z</time>
      </trkpt>
      <trkpt lat="36.594900" lon="-110.906850">
        <ele>1995.765</ele>
        <time>2018-12-27T23:40:05Z</time>
      </trkpt>
      <trkpt lat="36.594650" lon="-110.905870">
        <ele>1989.850</ele>
        <time>2018-12-27T23:40:25Z</time>
      </trkpt>
      <trkpt lat="36.594330" lon="-110.904640">
        <ele>1992.511</ele>
        <time>2018-12-27T23:40:45Z</time>
      </trkpt>
      <trkpt lat="36.594020" lon="-110.903410">
        <ele>1977.955</ele>
        <time>2018-12-27T23:41:05Z</time>
      </trkpt>
      <trkpt lat="36.593590" lon="-110.901800">
        <ele>2000.432</ele>
        <time>2018-12-27T23:41:25Z</time>
      </trkpt>
      <trkpt lat="36.593260" lon="-110.900540">
        <ele>2000.767</ele>
        <time>2018-12-27T23:41:45Z</time>
      </trkpt>
      <trkpt lat="36.593100" lon="-110.899890">
        <ele>1999.646</ele>
        <time>2018-12-27T23:42:05Z</time>
      </trkpt>
      <trkpt lat="36.593010" lon="-110.899570">
        <ele>2000.253</ele>
        <time>2018-12-27T23:42:25Z</time>
      </trkpt>
      <trkpt lat="36.592940" lon="-110.899350">
        <ele>1999.804</ele>
        <time>2018-12-27T23:42:45Z</time>
      </trkpt>
      <trkpt lat="36.592860" lon="-110.899080">
        <ele>2001.014</ele>
        <time>2018-12-27T23:43:05Z</time>
      </trkpt>
      <trkpt lat="36.592770" lon="-110.898840">
        <ele>1999.808</ele>
        <time>2018-12-27T23:43:25Z</time>
      </trkpt>
      <trkpt lat="36.592630" lon="-110.898440">
        <ele>1999.418</ele>
        <time>2018-12-27T23:43:45Z</time>
      </trkpt>
      <trkpt lat="36.592250" lon="-110.897460">
        <ele>2009.046</ele>
        <time>2018-12-27T23:44:05Z</time>
      </trkpt>
      <trkpt lat="36.592060" lon="-110.896960">
        <ele>2015.641</ele>
        <time>2018-12-27T23:44:25Z</time>
      </trkpt>
      <trkpt lat="36.591690" lon="-110.895960">
        <ele>2027.792</ele>
        <time>2018-12-27T23:44:45Z</time>
      </trkpt>
      <trkpt lat="36.591560" lon="-110.895630">
        <ele>2028.926</ele>
        <time>2018-12-27T23:45:05Z</time>
      </trkpt>
      <trkpt lat="36.591440" lon="-110.895330">
        <ele>2027.863</ele>
        <time>2018-12-27T23:45:25Z</time>
      </trkpt>
      <trkpt lat="36.591350" lon="-110.895060">
        <ele>2025.188</ele>
        <time>2018-12-27T23:45:45Z</time>
      </trkpt>
      <trkpt lat="36.591280" lon="-110.894840">
        <ele>2023.067</ele>
        <time>2018-12-27T23:46:05Z</time>
      </trkpt>
      <trkpt lat="36.591230" lon="-110.894640">
        <ele>2023.496</ele>
        <time>2018-12-27T23:46:25Z</time>
      </trkpt>
      <trkpt lat="36.591180" lon="-110.894400">
        <ele>2023.931</ele>
        <time>2018-12-27T23:46:45Z</time>
      </trkpt>
      <trkpt lat="36.591140" lon="-110.894150">
        <ele>2021.924</ele>
        <time>2018-12-27T23:47:05Z</time>
      </trkpt>
      <trkpt lat="36.591110" lon="-110.893880">
        <ele>2021.708</ele>
        <time>2018-12-27T23:47:25Z</time>
      </trkpt>
      <trkpt lat="36.591100" lon="-110.893700">
        <ele>2023.072</ele>
        <time>2018-12-27T23:47:45Z</time>
      </trkpt>
      <trkpt lat="36.591080" lon="-110.893370">
        <ele>2024.690</ele>
        <time>2018-12-27T23:48:05Z</time>
      </trkpt>
      <trkpt lat="36.591060" lon="-110.893000">
        <ele>2021.075</ele>
        <time>2018-12-27T23:48:25Z</time>
      </trkpt>
      <trkpt lat="36.591020" lon="-110.891710">
        <ele>2012.226</ele>
        <time>2018-12-27T23:48:45Z</time>
      </trkpt>
      <trkpt lat="36.590970" lon="-110.889910">
        <ele>2014.630</ele>
        <time>2018-12-27T23:49:05Z</time>
      </trkpt>
      <trkpt lat="36.590940" lon="-110.888970">
        <ele>2012.567</ele>
        <time>2018-12-27T23:49:25Z</time>
      </trkpt>
      <trkpt lat="36.590900" lon="-110.887610">
        <ele>2009.522</ele>
        <time>2018-12-27T23:49:45Z</time>
      </trkpt>
      <trkpt lat="36.590890" lon="-110.887240">
        <ele>2008.881</ele>
        <time>2018-12-27T23:50:05Z</time>
      </trkpt>
      <trkpt lat="36.590870" lon="-110.886930">
        <ele>2008.153</ele>
        <time>2018-12-27T23:50:25Z</time>
      </trkpt>
      <trkpt lat="36.590850" lon="-110.886680">
        <ele>2007.604</ele>
        <time>2018-12-27T23:50:45Z</time>
      </trkpt>
      <trkpt lat="36.590800" lon="-110.886190">
        <ele>2006.514</ele>
        <time>2018-12-27T23:51:05Z</time>
      </trkpt>
      <trkpt lat="36.590780" lon="-110.886000">
        <ele>2006.108</ele>
        <time>2018-12-27T23:51:25Z</time>
      </trkpt>
      <trkpt lat="36.590680" lon="-110.885360">
        <ele>2004.468</ele>
        <time>2018-12-27T23:51:45Z</time>
      </trkpt>
      <trkpt lat="36.590000" lon="-110.882080">
        <ele>2006.736</ele>
        <time>2018-12-27T23:52:05Z</time>
      </trkpt>
      <trkpt lat="36.589800" lon="-110.881160">
        <ele>2008.951</ele>
        <time>2018-12-27T23:52:25Z</time>
      </trkpt>
      <trkpt lat="36.589370" lon="-110.879150">
        <ele>2013.782</ele>
        <time>2018-12-27T23:52:45Z</time>
      </trkpt>
      <trkpt lat="36.588640" lon="-110.875740">
        <ele>2025.296</ele>
        <time>2018-12-27T23:53:05Z</time>
      </trkpt>
      <trkpt lat="36.588490" lon="-110.875030">
        <ele>2027.093</ele>
        <time>2018-12-27T23:53:25Z</time>
      </trkpt>
      <trkpt lat="36.588390" lon="-110.874580">
        <ele>2028.148</ele>
        <time>2018-12-27T23:53:45Z</time>
      </trkpt>
      <trkpt lat="36.588310" lon="-110.874220">
        <ele>2029.367</ele>
        <time>2018-12-27T23:54:05Z</time>
      </trkpt>
      <trkpt lat="36.588220" lon="-110.873860">
        <ele>2030.564</ele>
        <time>2018-12-27T23:54:25Z</time>
      </trkpt>
      <trkpt lat="36.588120" lon="-110.873480">
        <ele>2031.606</ele>
        <time>2018-12-27T23:54:45Z</time>
      </trkpt>
      <trkpt lat="36.588040" lon="-110.873210">
        <ele>2032.216</ele>
        <time>2018-12-27T23:55:05Z</time>
      </trkpt>
      <trkpt lat="36.587950" lon="-110.872940">
        <ele>2033.008</ele>
        <time>2018-12-27T23:55:25Z</time>
      </trkpt>
      <trkpt lat="36.587880" lon="-110.872720">
        <ele>2033.749</ele>
        <time>2018-12-27T23:55:45Z</time>
      </trkpt>
      <trkpt lat="36.587790" lon="-110.872490">
        <ele>2034.547</ele>
        <time>2018-12-27T23:56:05Z</time>
      </trkpt>
      <trkpt lat="36.587630" lon="-110.872120">
        <ele>2035.512</ele>
        <time>2018-12-27T23:56:25Z</time>
      </trkpt>
      <trkpt lat="36.587560" lon="-110.871950">
        <ele>2035.693</ele>
        <time>2018-12-27T23:56:45Z</time>
      </trkpt>
      <trkpt lat="36.587420" lon="-110.871670">
        <ele>2036.097</ele>
        <time>2018-12-27T23:57:05Z</time>
      </trkpt>
      <trkpt lat="36.587230" lon="-110.871300">
        <ele>2036.984</ele>
        <time>2018-12-27T23:57:25Z</time>
      </trkpt>
      <trkpt lat="36.586720" lon="-110.870360">
        <ele>2040.299</ele>
        <time>2018-12-27T23:57:45Z</time>
      </trkpt>
      <trkpt lat="36.586330" lon="-110.869660">
        <ele>2039.428</ele>
        <time>2018-12-27T23:58:05Z</time>
      </trkpt>
      <trkpt lat="36.585940" lon="-110.868940">
        <ele>2036.955</ele>
        <time>2018-12-27T23:58:25Z</time>
      </trkpt>
      <trkpt lat="36.585600" lon="-110.868330">
        <ele>2035.407</ele>
        <time>2018-12-27T23:58:45Z</time>
      </trkpt>
      <trkpt lat="36.585300" lon="-110.867780">
        <ele>2033.917</ele>
        <time>2018-12-27T23:59:05Z</time>
      </trkpt>
      <trkpt lat="36.584960" lon="-110.867170">
        <ele>2032.108</ele>
        <time>2018-12-27T23:59:25Z</time>
      </trkpt>
      <trkpt lat="36.584700" lon="-110.866680">
        <ele>2030.478</ele>
        <time>2018-12-27T23:59:45Z</time>
      </trkpt>
      <trkpt lat="36.584510" lon="-110.866340">
        <ele>2028.136</ele>
        <time>2018-12-28T00:00:05Z</time>
      </trkpt>
      <trkpt lat="36.584400" lon="-110.866150">
        <ele>2026.771</ele>
        <time>2018-12-28T00:00:25Z</time>
      </trkpt>
      <trkpt lat="36.583970" lon="-110.865360">
        <ele>2022.812</ele>
        <time>2018-12-28T00:00:45Z</time>
      </trkpt>
      <trkpt lat="36.583840" lon="-110.865130">
        <ele>2022.386</ele>
        <time>2018-12-28T00:01:05Z</time>
      </trkpt>
      <trkpt lat="36.583460" lon="-110.864420">
        <ele>2022.083</ele>
        <time>2018-12-28T00:01:25Z</time>
      </trkpt>
      <trkpt lat="36.582540" lon="-110.862750">
        <ele>2025.638</ele>
        <time>2018-12-28T00:01:45Z</time>
      </trkpt>
      <trkpt lat="36.582360" lon="-110.862430">
        <ele>2026.547</ele>
        <time>2018-12-28T00:02:05Z</time>
      </trkpt>
      <trkpt lat="36.581740" lon="-110.861290">
        <ele>2029.064</ele>
        <time>2018-12-28T00:02:25Z</time>
      </trkpt>
      <trkpt lat="36.581270" lon="-110.860450">
        <ele>2029.606</ele>
        <time>2018-12-28T00:02:45Z</time>
      </trkpt>
      <trkpt lat="36.581140" lon="-110.860200">
        <ele>2029.816</ele>
        <time>2018-12-28T00:03:05Z</time>
      </trkpt>
      <trkpt lat="36.581000" lon="-110.859920">
        <ele>2030.008</ele>
        <time>2018-12-28T00:03:25Z</time>
      </trkpt>
      <trkpt lat="36.580920" lon="-110.859730">
        <ele>2030.399</ele>
        <time>2018-12-28T00:03:45Z</time>
      </trkpt>
      <trkpt lat="36.580880" lon="-110.859660">
        <ele>2030.477</ele>
        <time>2018-12-28T00:04:05Z</time>
      </trkpt>
      <trkpt lat="36.580820" lon="-110.859520">
        <ele>2030.642</ele>
        <time>2018-12-28T00:04:25Z</time>
      </trkpt>
      <trkpt lat="36.580740" lon="-110.859340">
        <ele>2030.913</ele>
        <time>2018-12-28T00:04:45Z</time>
      </trkpt>
      <trkpt lat="36.580680" lon="-110.859190">
        <ele>2031.197</ele>
        <time>2018-12-28T00:05:05Z</time>
      </trkpt>
      <trkpt lat="36.580590" lon="-110.858980">
        <ele>2031.344</ele>
        <time>2018-12-28T00:05:25Z</time>
      </trkpt>
      <trkpt lat="36.580490" lon="-110.858710">
        <ele>2031.669</ele>
        <time>2018-12-28T00:05:45Z</time>
      </trkpt>
      <trkpt lat="36.580390" lon="-110.858410">
        <ele>2031.758</ele>
        <time>2018-12-28T00:06:05Z</time>
      </trkpt>
      <trkpt lat="36.580320" lon="-110.858180">
        <ele>2031.734</ele>
        <time>2018-12-28T00:06:25Z</time>
      </trkpt>
      <trkpt lat="36.580250" lon="-110.857930">
        <ele>2031.755</ele>
        <time>2018-12-28T00:06:45Z</time>
      </trkpt>
      <trkpt lat="36.580180" lon="-110.857640">
        <ele>2031.510</ele>
        <time>2018-12-28T00:07:05Z</time>
      </trkpt>
      <trkpt lat="36.580140" lon="-110.857470">
        <ele>2031.408</ele>
        <time>2018-12-28T00:07:25Z</time>
      </trkpt>
      <trkpt lat="36.580100" lon="-110.857300">
        <ele>2031.216</ele>
        <time>2018-12-28T00:07:45Z</time>
      </trkpt>
      <trkpt lat="36.580050" lon="-110.857020">
        <ele>2031.044</ele>
        <time>2018-12-28T00:08:05Z</time>
      </trkpt>
      <trkpt lat="36.580010" lon="-110.856820">
        <ele>2030.739</ele>
        <time>2018-12-28T00:08:25Z</time>
      </trkpt>
      <trkpt lat="36.579980" lon="-110.856640">
        <ele>2030.670</ele>
        <time>2018-12-28T00:08:45Z</time>
      </trkpt>
      <trkpt lat="36.579940" lon="-110.856270">
        <ele>2030.444</ele>
        <time>2018-12-28T00:09:05Z</time>
      </trkpt>
      <trkpt lat="36.579890" lon="-110.855870">
        <ele>2030.261</ele>
        <time>2018-12-28T00:09:25Z</time>
      </trkpt>
      <trkpt lat="36.579870" lon="-110.855490">
        <ele>2030.256</ele>
        <time>2018-12-28T00:09:45Z</time>
      </trkpt>
      <trkpt lat="36.579860" lon="-110.855040">
        <ele>2030.215</ele>
        <time>2018-12-28T00:10:05Z</time>
      </trkpt>
      <trkpt lat="36.579860" lon="-110.854490">
        <ele>2030.396</ele>
        <time>2018-12-28T00:10:25Z</time>
      </trkpt>
      <trkpt lat="36.579900" lon="-110.853780">
        <ele>2030.431</ele>
        <time>2018-12-28T00:10:45Z</time>
      </trkpt>
      <trkpt lat="36.579950" lon="-110.853280">
        <ele>2030.224</ele>
        <time>2018-12-28T00:11:05Z</time>
      </trkpt>
      <trkpt lat="36.580040" lon="-110.852730">
        <ele>2030.208</ele>
        <time>2018-12-28T00:11:25Z</time>
      </trkpt>
      <trkpt lat="36.580130" lon="-110.852250">
        <ele>2030.142</ele>
        <time>2018-12-28T00:11:45Z</time>
      </trkpt>
      <trkpt lat="36.580320" lon="-110.851200">
        <ele>2027.820</ele>
        <time>2018-12-28T00:12:05Z</time>
      </trkpt>
      <trkpt lat="36.580500" lon="-110.850250">
        <ele>2026.045</ele>
        <time>2018-12-28T00:12:25Z</time>
      </trkpt>
      <trkpt lat="36.580630" lon="-110.849510">
        <ele>2023.996</ele>
        <time>2018-12-28T00:12:45Z</time>
      </trkpt>
      <trkpt lat="36.580730" lon="-110.848940">
        <ele>2021.440</ele>
        <time>2018-12-28T00:13:05Z</time>
      </trkpt>
      <trkpt lat="36.580860" lon="-110.848220">
        <ele>2018.597</ele>
        <time>2018-12-28T00:13:25Z</time>
      </trkpt>
      <trkpt lat="36.580960" lon="-110.847740">
        <ele>2017.842</ele>
        <time>2018-12-28T00:13:45Z</time>
      </trkpt>
      <trkpt lat="36.581060" lon="-110.847170">
        <ele>2016.551</ele>
        <time>2018-12-28T00:14:05Z</time>
      </trkpt>
      <trkpt lat="36.581210" lon="-110.846370">
        <ele>2014.137</ele>
        <time>2018-12-28T00:14:25Z</time>
      </trkpt>
      <trkpt lat="36.581550" lon="-110.844530">
        <ele>2011.549</ele>
        <time>2018-12-28T00:14:45Z</time>
      </trkpt>
      <trkpt lat="36.581580" lon="-110.844340">
        <ele>2011.413</ele>
        <time>2018-12-28T00:15:05Z</time>
      </trkpt>
      <trkpt lat="36.581740" lon="-110.843530">
        <ele>2011.108</ele>
        <time>2018-12-28T00:15:25Z</time>
      </trkpt>
      <trkpt lat="36.582000" lon="-110.842140">
        <ele>2010.776</ele>
        <time>2018-12-28T00:15:45Z</time>
      </trkpt>
      <trkpt lat="36.582120" lon="-110.841480">
        <ele>2010.634</ele>
        <time>2018-12-28T00:16:05Z</time>
      </trkpt>
      <trkpt lat="36.582380" lon="-110.840050">
        <ele>2009.439</ele>
        <time>2018-12-28T00:16:25Z</time>
      </trkpt>
      <trkpt lat="36.582550" lon="-110.839150">
        <ele>2008.420</ele>
        <time>2018-12-28T00:16:45Z</time>
      </trkpt>
      <trkpt lat="36.582690" lon="-110.838350">
        <ele>2007.844</ele>
        <time>2018-12-28T00:17:05Z</time>
      </trkpt>
      <trkpt lat="36.583280" lon="-110.835160">
        <ele>2003.671</ele>
        <time>2018-12-28T00:17:25Z</time>
      </trkpt>
      <trkpt lat="36.583470" lon="-110.834150">
        <ele>2002.976</ele>
        <time>2018-12-28T00:17:45Z</time>
      </trkpt>
      <trkpt lat="36.583620" lon="-110.833130">
        <ele>2002.545</ele>
        <time>2018-12-28T00:18:05Z</time>
      </trkpt>
      <trkpt lat="36.583640" lon="-110.832950">
        <ele>2002.414</ele>
        <time>2018-12-28T00:18:25Z</time>
      </trkpt>
      <trkpt lat="36.583710" lon="-110.832370">
        <ele>2001.954</ele>
        <time>2018-12-28T00:18:45Z</time>
      </trkpt>
      <trkpt lat="36.583910" lon="-110.830370">
        <ele>1997.709</ele>
        <time>2018-12-28T00:19:05Z</time>
      </trkpt>
      <trkpt lat="36.584150" lon="-110.828180">
        <ele>1989.608</ele>
        <time>2018-12-28T00:19:25Z</time>
      </trkpt>
      <trkpt lat="36.584280" lon="-110.826870">
        <ele>1978.484</ele>
        <time>2018-12-28T00:19:45Z</time>
      </trkpt>
      <trkpt lat="36.584370" lon="-110.826070">
        <ele>1974.372</ele>
        <time>2018-12-28T00:20:05Z</time>
      </trkpt>
      <trkpt lat="36.584420" lon="-110.825640">
        <ele>1972.237</ele>
        <time>2018-12-28T00:20:25Z</time>
      </trkpt>
      <trkpt lat="36.584460" lon="-110.825120">
        <ele>1970.168</ele>
        <time>2018-12-28T00:20:45Z</time>
      </trkpt>
      <trkpt lat="36.584510" lon="-110.824620">
        <ele>1968.682</ele>
        <time>2018-12-28T00:21:05Z</time>
      </trkpt>
      <trkpt lat="36.584580" lon="-110.824060">
        <ele>1966.339</ele>
        <time>2018-12-28T00:21:25Z</time>
      </trkpt>
      <trkpt lat="36.584640" lon="-110.823460">
        <ele>1964.444</ele>
        <time>2018-12-28T00:21:45Z</time>
      </trkpt>
      <trkpt lat="36.584650" lon="-110.823370">
        <ele>1964.353</ele>
        <time>2018-12-28T00:22:05Z</time>
      </trkpt>
      <trkpt lat="36.584750" lon="-110.822460">
        <ele>1964.167</ele>
        <time>2018-12-28T00:22:25Z</time>
      </trkpt>
      <trkpt lat="36.584800" lon="-110.822030">
        <ele>1963.681</ele>
        <time>2018-12-28T00:22:45Z</time>
      </trkpt>
      <trkpt lat="36.584810" lon="-110.821890">
        <ele>1963.419</ele>
        <time>2018-12-28T00:23:05Z</time>
      </trkpt>
      <trkpt lat="36.584850" lon="-110.821450">
        <ele>1962.708</ele>
        <time>2018-12-28T00:23:25Z</time>
      </trkpt>
      <trkpt lat="36.584900" lon="-110.820880">
        <ele>1962.289</ele>
        <time>2018-12-28T00:23:45Z</time>
      </trkpt>
      <trkpt lat="36.584910" lon="-110.820650">
        <ele>1962.267</ele>
        <time>2018-12-28T00:24:05Z</time>
      </trkpt>
      <trkpt lat="36.584910" lon="-110.820300">
        <ele>1962.622</ele>
        <time>2018-12-28T00:24:25Z</time>
      </trkpt>
      <trkpt lat="36.584910" lon="-110.820010">
        <ele>1963.043</ele>
        <time>2018-12-28T00:24:45Z</time>
      </trkpt>
      <trkpt lat="36.584910" lon="-110.819730">
        <ele>1963.477</ele>
        <time>2018-12-28T00:25:05Z</time>
      </trkpt>
      <trkpt lat="36.584900" lon="-110.819530">
        <ele>1963.944</ele>
        <time>2018-12-28T00:25:25Z</time>
      </trkpt>
      <trkpt lat="36.584890" lon="-110.819340">
        <ele>1965.239</ele>
        <time>2018-12-28T00:25:45Z</time>
      </trkpt>
      <trkpt lat="36.584870" lon="-110.819170">
        <ele>1967.198</ele>
        <time>2018-12-28T00:26:05Z</time>
      </trkpt>
      <trkpt lat="36.584840" lon="-110.818830">
        <ele>1968.597</ele>
        <time>2018-12-28T00:26:25Z</time>
      </trkpt>
      <trkpt lat="36.584780" lon="-110.818370">
        <ele>1968.023</ele>
        <time>2018-12-28T00:26:45Z</time>
      </trkpt>
      <trkpt lat="36.584690" lon="-110.817820">
        <ele>1968.225</ele>
        <time>2018-12-28T00:27:05Z</time>
      </trkpt>
      <trkpt lat="36.584250" lon="-110.815410">
        <ele>1967.108</ele>
        <time>2018-12-28T00:27:25Z</time>
      </trkpt>
      <trkpt lat="36.582910" lon="-110.807900">
        <ele>1959.062</ele>
        <time>2018-12-28T00:27:45Z</time>
      </trkpt>
      <trkpt lat="36.582680" lon="-110.806560">
        <ele>1955.330</ele>
        <time>2018-12-28T00:28:05Z</time>
      </trkpt>
      <trkpt lat="36.582580" lon="-110.806040">
        <ele>1954.355</ele>
        <time>2018-12-28T00:28:25Z</time>
      </trkpt>
      <trkpt lat="36.582500" lon="-110.805550">
        <ele>1953.676</ele>
        <time>2018-12-28T00:28:45Z</time>
      </trkpt>
      <trkpt lat="36.582320" lon="-110.804560">
        <ele>1952.190</ele>
        <time>2018-12-28T00:29:05Z</time>
      </trkpt>
      <trkpt lat="36.582250" lon="-110.804170">
        <ele>1951.177</ele>
        <time>2018-12-28T00:29:25Z</time>
      </trkpt>
      <trkpt lat="36.582200" lon="-110.803890">
        <ele>1950.072</ele>
        <time>2018-12-28T00:29:45Z</time>
      </trkpt>
      <trkpt lat="36.582070" lon="-110.803160">
        <ele>1946.691</ele>
        <time>2018-12-28T00:30:05Z</time>
      </trkpt>
      <trkpt lat="36.581870" lon="-110.802000">
        <ele>1939.037</ele>
        <time>2018-12-28T00:30:25Z</time>
      </trkpt>
      <trkpt lat="36.581770" lon="-110.801430">
        <ele>1938.549</ele>
        <time>2018-12-28T00:30:45Z</time>
      </trkpt>
      <trkpt lat="36.581680" lon="-110.800950">
        <ele>1938.413</ele>
        <time>2018-12-28T00:31:05Z</time>
      </trkpt>
      <trkpt lat="36.581090" lon="-110.797590">
        <ele>1923.908</ele>
        <time>2018-12-28T00:31:25Z</time>
      </trkpt>
      <trkpt lat="36.580950" lon="-110.796860">
        <ele>1922.596</ele>
        <time>2018-12-28T00:31:45Z</time>
      </trkpt>
      <trkpt lat="36.580930" lon="-110.796730">
        <ele>1922.384</ele>
        <time>2018-12-28T00:32:05Z</time>
      </trkpt>
      <trkpt lat="36.580810" lon="-110.796100">
        <ele>1921.719</ele>
        <time>2018-12-28T00:32:25Z</time>
      </trkpt>
      <trkpt lat="36.580660" lon="-110.795270">
        <ele>1920.980</ele>
        <time>2018-12-28T00:32:45Z</time>
      </trkpt>
      <trkpt lat="36.580530" lon="-110.794470">
        <ele>1920.094</ele>
        <time>2018-12-28T00:33:05Z</time>
      </trkpt>
      <trkpt lat="36.580520" lon="-110.794430">
        <ele>1919.921</ele>
        <time>2018-12-28T00:33:25Z</time>
      </trkpt>
      <trkpt lat="36.580340" lon="-110.793440">
        <ele>1919.346</ele>
        <time>2018-12-28T00:33:45Z</time>
      </trkpt>
      <trkpt lat="36.580320" lon="-110.793350">
        <ele>1919.245</ele>
        <time>2018-12-28T00:34:05Z</time>
      </trkpt>
      <trkpt lat="36.580180" lon="-110.792530">
        <ele>1919.128</ele>
        <time>2018-12-28T00:34:25Z</time>
      </trkpt>
      <trkpt lat="36.580040" lon="-110.791750">
        <ele>1919.389</ele>
        <time>2018-12-28T00:34:45Z</time>
      </trkpt>
      <trkpt lat="36.579850" lon="-110.790640">
        <ele>1919.517</ele>
        <time>2018-12-28T00:35:05Z</time>
      </trkpt>
      <trkpt lat="36.579720" lon="-110.789970">
        <ele>1917.808</ele>
        <time>2018-12-28T00:35:25Z</time>
      </trkpt>
      <trkpt lat="36.579490" lon="-110.788700">
        <ele>1914.745</ele>
        <time>2018-12-28T00:35:45Z</time>
      </trkpt>
      <trkpt lat="36.579400" lon="-110.788140">
        <ele>1913.033</ele>
        <time>2018-12-28T00:36:05Z</time>
      </trkpt>
      <trkpt lat="36.579150" lon="-110.786780">
        <ele>1908.638</ele>
        <time>2018-12-28T00:36:25Z</time>
      </trkpt>
      <trkpt lat="36.579040" lon="-110.786140">
        <ele>1907.169</ele>
        <time>2018-12-28T00:36:45Z</time>
      </trkpt>
      <trkpt lat="36.578670" lon="-110.784050">
        <ele>1904.383</ele>
        <time>2018-12-28T00:37:05Z</time>
      </trkpt>
      <trkpt lat="36.578590" lon="-110.783640">
        <ele>1904.120</ele>
        <time>2018-12-28T00:37:25Z</time>
      </trkpt>
      <trkpt lat="36.578490" lon="-110.783090">
        <ele>1904.165</ele>
        <time>2018-12-28T00:37:45Z</time>
      </trkpt>
      <trkpt lat="36.578300" lon="-110.782000">
        <ele>1904.844</ele>
        <time>2018-12-28T00:38:05Z</time>
      </trkpt>
      <trkpt lat="36.578230" lon="-110.781580">
        <ele>1904.566</ele>
        <time>2018-12-28T00:38:25Z</time>
      </trkpt>
      <trkpt lat="36.578140" lon="-110.781100">
        <ele>1903.729</ele>
        <time>2018-12-28T00:38:45Z</time>
      </trkpt>
      <trkpt lat="36.577920" lon="-110.779880">
        <ele>1899.421</ele>
        <time>2018-12-28T00:39:05Z</time>
      </trkpt>
      <trkpt lat="36.577690" lon="-110.778580">
        <ele>1898.008</ele>
        <time>2018-12-28T00:39:25Z</time>
      </trkpt>
      <trkpt lat="36.577620" lon="-110.778230">
        <ele>1896.829</ele>
        <time>2018-12-28T00:39:45Z</time>
      </trkpt>
      <trkpt lat="36.577580" lon="-110.777970">
        <ele>1895.657</ele>
        <time>2018-12-28T00:40:05Z</time>
      </trkpt>
      <trkpt lat="36.577480" lon="-110.777450">
        <ele>1893.342</ele>
        <time>2018-12-28T00:40:25Z</time>
      </trkpt>
      <trkpt lat="36.577360" lon="-110.776730">
        <ele>1891.163</ele>
        <time>2018-12-28T00:40:45Z</time>
      </trkpt>
      <trkpt lat="36.577340" lon="-110.776600">
        <ele>1890.947</ele>
        <time>2018-12-28T00:41:05Z</time>
      </trkpt>
      <trkpt lat="36.577240" lon="-110.776090">
        <ele>1890.844</ele>
        <time>2018-12-28T00:41:25Z</time>
      </trkpt>
      <trkpt lat="36.576980" lon="-110.774560">
        <ele>1895.369</ele>
        <time>2018-12-28T00:41:45Z</time>
      </trkpt>
      <trkpt lat="36.576960" lon="-110.774470">
        <ele>1895.558</ele>
        <time>2018-12-28T00:42:05Z</time>
      </trkpt>
      <trkpt lat="36.576920" lon="-110.774270">
        <ele>1895.871</ele>
        <time>2018-12-28T00:42:25Z</time>
      </trkpt>
      <trkpt lat="36.576860" lon="-110.774060">
        <ele>1895.841</ele>
        <time>2018-12-28T00:42:45Z</time>
      </trkpt>
      <trkpt lat="36.576800" lon="-110.773800">
        <ele>1895.715</ele>
        <time>2018-12-28T00:43:05Z</time>
      </trkpt>
      <trkpt lat="36.576740" lon="-110.773620">
        <ele>1894.908</ele>
        <time>2018-12-28T00:43:25Z</time>
      </trkpt>
      <trkpt lat="36.576700" lon="-110.773470">
        <ele>1894.320</ele>
        <time>2018-12-28T00:43:45Z</time>
      </trkpt>
      <trkpt lat="36.576660" lon="-110.773340">
        <ele>1893.528</ele>
        <time>2018-12-28T00:44:05Z</time>
      </trkpt>
      <trkpt lat="36.576600" lon="-110.773170">
        <ele>1892.743</ele>
        <time>2018-12-28T00:44:25Z</time>
      </trkpt>
      <trkpt lat="36.576450" lon="-110.772780">
        <ele>1891.384</ele>
        <time>2018-12-28T00:44:45Z</time>
      </trkpt>
      <trkpt lat="36.576320" lon="-110.772470">
        <ele>1890.898</ele>
        <time>2018-12-28T00:45:05Z</time>
      </trkpt>
      <trkpt lat="36.576200" lon="-110.772220">
        <ele>1890.885</ele>
        <time>2018-12-28T00:45:25Z</time>
      </trkpt>
      <trkpt lat="36.576090" lon="-110.772020">
        <ele>1890.870</ele>
        <time>2018-12-28T00:45:45Z</time>
      </trkpt>
      <trkpt lat="36.575960" lon="-110.771770">
        <ele>1890.829</ele>
        <time>2018-12-28T00:46:05Z</time>
      </trkpt>
      <trkpt lat="36.575810" lon="-110.771520">
        <ele>1890.814</ele>
        <time>2018-12-28T00:46:25Z</time>
      </trkpt>
      <trkpt lat="36.575590" lon="-110.771200">
        <ele>1891.054</ele>
        <time>2018-12-28T00:46:45Z</time>
      </trkpt>
      <trkpt lat="36.575210" lon="-110.770660">
        <ele>1891.509</ele>
        <time>2018-12-28T00:47:05Z</time>
      </trkpt>
      <trkpt lat="36.575100" lon="-110.770510">
        <ele>1892.208</ele>
        <time>2018-12-28T00:47:25Z</time>
      </trkpt>
      <trkpt lat="36.574460" lon="-110.769650">
        <ele>1894.124</ele>
        <time>2018-12-28T00:47:45Z</time>
      </trkpt>
      <trkpt lat="36.573870" lon="-110.768890">
        <ele>1893.392</ele>
        <time>2018-12-28T00:48:05Z</time>
      </trkpt>
      <trkpt lat="36.572290" lon="-110.766790">
        <ele>1895.637</ele>
        <time>2018-12-28T00:48:25Z</time>
      </trkpt>
      <trkpt lat="36.571600" lon="-110.765840">
        <ele>1901.328</ele>
        <time>2018-12-28T00:48:45Z</time>
      </trkpt>
      <trkpt lat="36.570770" lon="-110.764750">
        <ele>1899.192</ele>
        <time>2018-12-28T00:49:05Z</time>
      </trkpt>
      <trkpt lat="36.570230" lon="-110.764030">
        <ele>1898.299</ele>
        <time>2018-12-28T00:49:25Z</time>
      </trkpt>
      <trkpt lat="36.569870" lon="-110.763540">
        <ele>1898.034</ele>
        <time>2018-12-28T00:49:45Z</time>
      </trkpt>
      <trkpt lat="36.569400" lon="-110.762930">
        <ele>1897.063</ele>
        <time>2018-12-28T00:50:05Z</time>
      </trkpt>
      <trkpt lat="36.569000" lon="-110.762420">
        <ele>1897.067</ele>
        <time>2018-12-28T00:50:25Z</time>
      </trkpt>
      <trkpt lat="36.568840" lon="-110.762190">
        <ele>1897.381</ele>
        <time>2018-12-28T00:50:45Z</time>
      </trkpt>
      <trkpt lat="36.568280" lon="-110.761430">
        <ele>1898.219</ele>
        <time>2018-12-28T00:51:05Z</time>
      </trkpt>
      <trkpt lat="36.567970" lon="-110.760990">
        <ele>1898.608</ele>
        <time>2018-12-28T00:51:25Z</time>
      </trkpt>
      <trkpt lat="36.567580" lon="-110.760460">
        <ele>1898.839</ele>
        <time>2018-12-28T00:51:45Z</time>
      </trkpt>
      <trkpt lat="36.567230" lon="-110.760000">
        <ele>1898.117</ele>
        <time>2018-12-28T00:52:05Z</time>
      </trkpt>
      <trkpt lat="36.566710" lon="-110.759300">
        <ele>1897.972</ele>
        <time>2018-12-28T00:52:25Z</time>
      </trkpt>
      <trkpt lat="36.566310" lon="-110.758760">
        <ele>1897.993</ele>
        <time>2018-12-28T00:52:45Z</time>
      </trkpt>
      <trkpt lat="36.565710" lon="-110.757950">
        <ele>1897.257</ele>
        <time>2018-12-28T00:53:05Z</time>
      </trkpt>
      <trkpt lat="36.565340" lon="-110.757440">
        <ele>1896.434</ele>
        <time>2018-12-28T00:53:25Z</time>
      </trkpt>
      <trkpt lat="36.564990" lon="-110.756970">
        <ele>1894.159</ele>
        <time>2018-12-28T00:53:45Z</time>
      </trkpt>
      <trkpt lat="36.564640" lon="-110.756510">
        <ele>1891.878</ele>
        <time>2018-12-28T00:54:05Z</time>
      </trkpt>
      <trkpt lat="36.564100" lon="-110.755780">
        <ele>1891.384</ele>
        <time>2018-12-28T00:54:25Z</time>
      </trkpt>
      <trkpt lat="36.563060" lon="-110.754390">
        <ele>1888.907</ele>
        <time>2018-12-28T00:54:45Z</time>
      </trkpt>
      <trkpt lat="36.561650" lon="-110.752510">
        <ele>1884.117</ele>
        <time>2018-12-28T00:55:05Z</time>
      </trkpt>
      <trkpt lat="36.561220" lon="-110.751920">
        <ele>1882.108</ele>
        <time>2018-12-28T00:55:25Z</time>
      </trkpt>
      <trkpt lat="36.561080" lon="-110.751720">
        <ele>1881.531</ele>
        <time>2018-12-28T00:55:45Z</time>
      </trkpt>
      <trkpt lat="36.560930" lon="-110.751500">
        <ele>1880.929</ele>
        <time>2018-12-28T00:56:05Z</time>
      </trkpt>
      <trkpt lat="36.560720" lon="-110.751120">
        <ele>1880.024</ele>
        <time>2018-12-28T00:56:25Z</time>
      </trkpt>
      <trkpt lat="36.560700" lon="-110.751080">
        <ele>1880.035</ele>
        <time>2018-12-28T00:56:45Z</time>
      </trkpt>
      <trkpt lat="36.560610" lon="-110.750890">
        <ele>1879.769</ele>
        <time>2018-12-28T00:57:05Z</time>
      </trkpt>
      <trkpt lat="36.560520" lon="-110.750680">
        <ele>1879.486</ele>
        <time>2018-12-28T00:57:25Z</time>
      </trkpt>
      <trkpt lat="36.560460" lon="-110.750520">
        <ele>1879.261</ele>
        <time>2018-12-28T00:57:45Z</time>
      </trkpt>
      <trkpt lat="36.560330" lon="-110.750160">
        <ele>1878.980</ele>
        <time>2018-12-28T00:58:05Z</time>
      </trkpt>
      <trkpt lat="36.560270" lon="-110.749930">
        <ele>1878.835</ele>
        <time>2018-12-28T00:58:25Z</time>
      </trkpt>
      <trkpt lat="36.560200" lon="-110.749670">
        <ele>1878.786</ele>
        <time>2018-12-28T00:58:45Z</time>
      </trkpt>
      <trkpt lat="36.560150" lon="-110.749420">
        <ele>1878.514</ele>
        <time>2018-12-28T00:59:05Z</time>
      </trkpt>
      <trkpt lat="36.560120" lon="-110.749240">
        <ele>1878.008</ele>
        <time>2018-12-28T00:59:25Z</time>
      </trkpt>
      <trkpt lat="36.560080" lon="-110.748970">
        <ele>1876.996</ele>
        <time>2018-12-28T00:59:45Z</time>
      </trkpt>
      <trkpt lat="36.560050" lon="-110.748630">
        <ele>1875.664</ele>
        <time>2018-12-28T01:00:05Z</time>
      </trkpt>
      <trkpt lat="36.560030" lon="-110.748260">
        <ele>1874.019</ele>
        <time>2018-12-28T01:00:25Z</time>
      </trkpt>
      <trkpt lat="36.560040" lon="-110.747960">
        <ele>1872.950</ele>
        <time>2018-12-28T01:00:45Z</time>
      </trkpt>
      <trkpt lat="36.560060" lon="-110.747490">
        <ele>1872.194</ele>
        <time>2018-12-28T01:01:05Z</time>
      </trkpt>
      <trkpt lat="36.560070" lon="-110.747420">
        <ele>1872.181</ele>
        <time>2018-12-28T01:01:25Z</time>
      </trkpt>
      <trkpt lat="36.560080" lon="-110.747340">
        <ele>1872.096</ele>
        <time>2018-12-28T01:01:45Z</time>
      </trkpt>
      <trkpt lat="36.560110" lon="-110.747130">
        <ele>1872.035</ele>
        <time>2018-12-28T01:02:05Z</time>
      </trkpt>
      <trkpt lat="36.560160" lon="-110.746880">
        <ele>1872.212</ele>
        <time>2018-12-28T01:02:25Z</time>
      </trkpt>
      <trkpt lat="36.560200" lon="-110.746650">
        <ele>1871.532</ele>
        <time>2018-12-28T01:02:45Z</time>
      </trkpt>
      <trkpt lat="36.560270" lon="-110.746400">
        <ele>1870.405</ele>
        <time>2018-12-28T01:03:05Z</time>
      </trkpt>
      <trkpt lat="36.560320" lon="-110.746210">
        <ele>1868.808</ele>
        <time>2018-12-28T01:03:25Z</time>
      </trkpt>
      <trkpt lat="36.560380" lon="-110.746010">
        <ele>1866.834</ele>
        <time>2018-12-28T01:03:45Z</time>
      </trkpt>
      <trkpt lat="36.560660" lon="-110.745240">
        <ele>1859.652</ele>
        <time>2018-12-28T01:04:05Z</time>
      </trkpt>
      <trkpt lat="36.560760" lon="-110.744990">
        <ele>1856.537</ele>
        <time>2018-12-28T01:04:25Z</time>
      </trkpt>
      <trkpt lat="36.561400" lon="-110.743300">
        <ele>1851.698</ele>
        <time>2018-12-28T01:04:45Z</time>
      </trkpt>
      <trkpt lat="36.561840" lon="-110.742160">
        <ele>1855.272</ele>
        <time>2018-12-28T01:05:05Z</time>
      </trkpt>
      <trkpt lat="36.562470" lon="-110.740470">
        <ele>1867.519</ele>
        <time>2018-12-28T01:05:25Z</time>
      </trkpt>
      <trkpt lat="36.562540" lon="-110.740290">
        <ele>1869.144</ele>
        <time>2018-12-28T01:05:45Z</time>
      </trkpt>
      <trkpt lat="36.562790" lon="-110.739650">
        <ele>1872.453</ele>
        <time>2018-12-28T01:06:05Z</time>
      </trkpt>
      <trkpt lat="36.562970" lon="-110.739150">
        <ele>1873.943</ele>
        <time>2018-12-28T01:06:25Z</time>
      </trkpt>
      <trkpt lat="36.563040" lon="-110.738940">
        <ele>1876.564</ele>
        <time>2018-12-28T01:06:45Z</time>
      </trkpt>
      <trkpt lat="36.563120" lon="-110.738690">
        <ele>1877.910</ele>
        <time>2018-12-28T01:07:05Z</time>
      </trkpt>
      <trkpt lat="36.563200" lon="-110.738440">
        <ele>1877.308</ele>
        <time>2018-12-28T01:07:25Z</time>
      </trkpt>
      <trkpt lat="36.563260" lon="-110.738200">
        <ele>1879.787</ele>
        <time>2018-12-28T01:07:45Z</time>
      </trkpt>
      <trkpt lat="36.563330" lon="-110.737860">
        <ele>1884.155</ele>
        <time>2018-12-28T01:08:05Z</time>
      </trkpt>
      <trkpt lat="36.563380" lon="-110.737640">
        <ele>1884.680</ele>
        <time>2018-12-28T01:08:25Z</time>
      </trkpt>
      <trkpt lat="36.563400" lon="-110.737440">
        <ele>1884.521</ele>
        <time>2018-12-28T01:08:45Z</time>
      </trkpt>
      <trkpt lat="36.563430" lon="-110.737240">
        <ele>1884.665</ele>
        <time>2018-12-28T01:09:05Z</time>
      </trkpt>
      <trkpt lat="36.563450" lon="-110.736990">
        <ele>1884.842</ele>
        <time>2018-12-28T01:09:25Z</time>
      </trkpt>
      <trkpt lat="36.563460" lon="-110.736750">
        <ele>1885.247</ele>
        <time>2018-12-28T01:09:45Z</time>
      </trkpt>
      <trkpt lat="36.563470" lon="-110.736520">
        <ele>1885.216</ele>
        <time>2018-12-28T01:10:05Z</time>
      </trkpt>
      <trkpt lat="36.563470" lon="-110.736220">
        <ele>1885.986</ele>
        <time>2018-12-28T01:10:25Z</time>
      </trkpt>
      <trkpt lat="36.563460" lon="-110.735950">
        <ele>1886.760</ele>
        <time>2018-12-28T01:10:45Z</time>
      </trkpt>
      <trkpt lat="36.563440" lon="-110.735650">
        <ele>1888.526</ele>
        <time>2018-12-28T01:11:05Z</time>
      </trkpt>
      <trkpt lat="36.563430" lon="-110.735540">
        <ele>1889.208</ele>
        <time>2018-12-28T01:11:25Z</time>
      </trkpt>
      <trkpt lat="36.563320" lon="-110.734680">
        <ele>1891.491</ele>
        <time>2018-12-28T01:11:45Z</time>
      </trkpt>
      <trkpt lat="36.563170" lon="-110.733610">
        <ele>1893.799</ele>
        <time>2018-12-28T01:12:05Z</time>
      </trkpt>
      <trkpt lat="36.563060" lon="-110.732770">
        <ele>1896.694</ele>
        <time>2018-12-28T01:12:25Z</time>
      </trkpt>
      <trkpt lat="36.562880" lon="-110.731510">
        <ele>1897.265</ele>
        <time>2018-12-28T01:12:45Z</time>
      </trkpt>
      <trkpt lat="36.562700" lon="-110.730160">
        <ele>1904.079</ele>
        <time>2018-12-28T01:13:05Z</time>
      </trkpt>
      <trkpt lat="36.562600" lon="-110.729450">
        <ele>1908.876</ele>
        <time>2018-12-28T01:13:25Z</time>
      </trkpt>
      <trkpt lat="36.562520" lon="-110.728840">
        <ele>1907.731</ele>
        <time>2018-12-28T01:13:45Z</time>
      </trkpt>
      <trkpt lat="36.562370" lon="-110.727770">
        <ele>1903.090</ele>
        <time>2018-12-28T01:14:05Z</time>
      </trkpt>
      <trkpt lat="36.562210" lon="-110.726700">
        <ele>1902.018</ele>
        <time>2018-12-28T01:14:25Z</time>
      </trkpt>
      <trkpt lat="36.562080" lon="-110.725980">
        <ele>1901.198</ele>
        <time>2018-12-28T01:14:45Z</time>
      </trkpt>
      <trkpt lat="36.562020" lon="-110.725650">
        <ele>1901.117</ele>
        <time>2018-12-28T01:15:05Z</time>
      </trkpt>
      <trkpt lat="36.561950" lon="-110.725330">
        <ele>1901.108</ele>
        <time>2018-12-28T01:15:25Z</time>
      </trkpt>
      <trkpt lat="36.561860" lon="-110.724960">
        <ele>1901.034</ele>
        <time>2018-12-28T01:15:45Z</time>
      </trkpt>
      <trkpt lat="36.561760" lon="-110.724560">
        <ele>1901.182</ele>
        <time>2018-12-28T01:16:05Z</time>
      </trkpt>
      <trkpt lat="36.561710" lon="-110.724380">
        <ele>1901.097</ele>
        <time>2018-12-28T01:16:25Z</time>
      </trkpt>
      <trkpt lat="36.561530" lon="-110.723740">
        <ele>1901.298</ele>
        <time>2018-12-28T01:16:45Z</time>
      </trkpt>
      <trkpt lat="36.561370" lon="-110.723270">
        <ele>1901.482</ele>
        <time>2018-12-28T01:17:05Z</time>
      </trkpt>
      <trkpt lat="36.561240" lon="-110.722870">
        <ele>1901.599</ele>
        <time>2018-12-28T01:17:25Z</time>
      </trkpt>
      <trkpt lat="36.561030" lon="-110.722280">
        <ele>1901.554</ele>
        <time>2018-12-28T01:17:45Z</time>
      </trkpt>
      <trkpt lat="36.560750" lon="-110.721600">
        <ele>1901.633</ele>
        <time>2018-12-28T01:18:05Z</time>
      </trkpt>
      <trkpt lat="36.560520" lon="-110.721080">
        <ele>1902.165</ele>
        <time>2018-12-28T01:18:25Z</time>
      </trkpt>
      <trkpt lat="36.560220" lon="-110.720430">
        <ele>1902.868</ele>
        <time>2018-12-28T01:18:45Z</time>
      </trkpt>
      <trkpt lat="36.559690" lon="-110.719350">
        <ele>1903.214</ele>
        <time>2018-12-28T01:19:05Z</time>
      </trkpt>
      <trkpt lat="36.559150" lon="-110.718230">
        <ele>1895.908</ele>
        <time>2018-12-28T01:19:25Z</time>
      </trkpt>
      <trkpt lat="36.558440" lon="-110.716760">
        <ele>1895.689</ele>
        <time>2018-12-28T01:19:45Z</time>
      </trkpt>
      <trkpt lat="36.556440" lon="-110.712690">
        <ele>1908.157</ele>
        <time>2018-12-28T01:20:05Z</time>
      </trkpt>
      <trkpt lat="36.555680" lon="-110.711100">
        <ele>1909.092</ele>
        <time>2018-12-28T01:20:25Z</time>
      </trkpt>
      <trkpt lat="36.555170" lon="-110.710060">
        <ele>1908.993</ele>
        <time>2018-12-28T01:20:45Z</time>
      </trkpt>
      <trkpt lat="36.553560" lon="-110.706780">
        <ele>1909.177</ele>
        <time>2018-12-28T01:21:05Z</time>
      </trkpt>
      <trkpt lat="36.553250" lon="-110.706100">
        <ele>1909.154</ele>
        <time>2018-12-28T01:21:25Z</time>
      </trkpt>
      <trkpt lat="36.552920" lon="-110.705430">
        <ele>1909.769</ele>
        <time>2018-12-28T01:21:45Z</time>
      </trkpt>
      <trkpt lat="36.552480" lon="-110.704530">
        <ele>1909.778</ele>
        <time>2018-12-28T01:22:05Z</time>
      </trkpt>
      <trkpt lat="36.552240" lon="-110.704050">
        <ele>1909.587</ele>
        <time>2018-12-28T01:22:25Z</time>
      </trkpt>
      <trkpt lat="36.552100" lon="-110.703770">
        <ele>1909.142</ele>
        <time>2018-12-28T01:22:45Z</time>
      </trkpt>
      <trkpt lat="36.551980" lon="-110.703560">
        <ele>1909.126</ele>
        <time>2018-12-28T01:23:05Z</time>
      </trkpt>
      <trkpt lat="36.551890" lon="-110.703390">
        <ele>1909.108</ele>
        <time>2018-12-28T01:23:25Z</time>
      </trkpt>
      <trkpt lat="36.551790" lon="-110.703230">
        <ele>1909.261</ele>
        <time>2018-12-28T01:23:45Z</time>
      </trkpt>
      <trkpt lat="36.551680" lon="-110.703080">
        <ele>1909.169</ele>
        <time>2018-12-28T01:24:05Z</time>
      </trkpt>
      <trkpt lat="36.551600" lon="-110.702960">
        <ele>1909.024</ele>
        <time>2018-12-28T01:24:25Z</time>
      </trkpt>
      <trkpt lat="36.551440" lon="-110.702770">
        <ele>1909.015</ele>
        <time>2018-12-28T01:24:45Z</time>
      </trkpt>
      <trkpt lat="36.551290" lon="-110.702580">
        <ele>1908.919</ele>
        <time>2018-12-28T01:25:05Z</time>
      </trkpt>
      <trkpt lat="36.551100" lon="-110.702380">
        <ele>1908.816</ele>
        <time>2018-12-28T01:25:25Z</time>
      </trkpt>
      <trkpt lat="36.550940" lon="-110.702210">
        <ele>1908.861</ele>
        <time>2018-12-28T01:25:45Z</time>
      </trkpt>
      <trkpt lat="36.550810" lon="-110.702090">
        <ele>1908.710</ele>
        <time>2018-12-28T01:26:05Z</time>
      </trkpt>
      <trkpt lat="36.550650" lon="-110.701950">
        <ele>1908.559</ele>
        <time>2018-12-28T01:26:25Z</time>
      </trkpt>
      <trkpt lat="36.550500" lon="-110.701830">
        <ele>1908.203</ele>
        <time>2018-12-28T01:26:45Z</time>
      </trkpt>
      <trkpt lat="36.550340" lon="-110.701710">
        <ele>1907.923</ele>
        <time>2018-12-28T01:27:05Z</time>
      </trkpt>
      <trkpt lat="36.550140" lon="-110.701580">
        <ele>1907.708</ele>
        <time>2018-12-28T01:27:25Z</time>
      </trkpt>
      <trkpt lat="36.549890" lon="-110.701420">
        <ele>1907.558</ele>
        <time>2018-12-28T01:27:45Z</time>
      </trkpt>
      <trkpt lat="36.549750" lon="-110.701350">
        <ele>1907.596</ele>
        <time>2018-12-28T01:28:05Z</time>
      </trkpt>
      <trkpt lat="36.549580" lon="-110.701260">
        <ele>1907.431</ele>
        <time>2018-12-28T01:28:25Z</time>
      </trkpt>
      <trkpt lat="36.549400" lon="-110.701190">
        <ele>1907.442</ele>
        <time>2018-12-28T01:28:45Z</time>
      </trkpt>
      <trkpt lat="36.549190" lon="-110.701110">
        <ele>1907.446</ele>
        <time>2018-12-28T01:29:05Z</time>
      </trkpt>
      <trkpt lat="36.549020" lon="-110.701050">
        <ele>1907.463</ele>
        <time>2018-12-28T01:29:25Z</time>
      </trkpt>
      <trkpt lat="36.548800" lon="-110.700990">
        <ele>1907.328</ele>
        <time>2018-12-28T01:29:45Z</time>
      </trkpt>
      <trkpt lat="36.548440" lon="-110.700900">
        <ele>1907.417</ele>
        <time>2018-12-28T01:30:05Z</time>
      </trkpt>
      <trkpt lat="36.548310" lon="-110.700890">
        <ele>1907.413</ele>
        <time>2018-12-28T01:30:25Z</time>
      </trkpt>
      <trkpt lat="36.548160" lon="-110.700870">
        <ele>1907.443</ele>
        <time>2018-12-28T01:30:45Z</time>
      </trkpt>
      <trkpt lat="36.547950" lon="-110.700850">
        <ele>1907.307</ele>
        <time>2018-12-28T01:31:05Z</time>
      </trkpt>
      <trkpt lat="36.547750" lon="-110.700840">
        <ele>1907.208</ele>
        <time>2018-12-28T01:31:25Z</time>
      </trkpt>
      <trkpt lat="36.547260" lon="-110.700840">
        <ele>1907.374</ele>
        <time>2018-12-28T01:31:45Z</time>
      </trkpt>
      <trkpt lat="36.546240" lon="-110.700880">
        <ele>1909.152</ele>
        <time>2018-12-28T01:32:05Z</time>
      </trkpt>
      <trkpt lat="36.545660" lon="-110.700890">
        <ele>1909.127</ele>
        <time>2018-12-28T01:32:25Z</time>
      </trkpt>
      <trkpt lat="36.545620" lon="-110.700890">
        <ele>1909.188</ele>
        <time>2018-12-28T01:32:45Z</time>
      </trkpt>
      <trkpt lat="36.543670" lon="-110.700960">
        <ele>1908.682</ele>
        <time>2018-12-28T01:33:05Z</time>
      </trkpt>
      <trkpt lat="36.542910" lon="-110.700990">
        <ele>1908.689</ele>
        <time>2018-12-28T01:33:25Z</time>
      </trkpt>
      <trkpt lat="36.539980" lon="-110.701080">
        <ele>1902.634</ele>
        <time>2018-12-28T01:33:45Z</time>
      </trkpt>
      <trkpt lat="36.539430" lon="-110.701100">
        <ele>1902.333</ele>
        <time>2018-12-28T01:34:05Z</time>
      </trkpt>
      <trkpt lat="36.538790" lon="-110.701120">
        <ele>1902.695</ele>
        <time>2018-12-28T01:34:25Z</time>
      </trkpt>
      <trkpt lat="36.537820" lon="-110.701150">
        <ele>1901.849</ele>
        <time>2018-12-28T01:34:45Z</time>
      </trkpt>
      <trkpt lat="36.537010" lon="-110.701180">
        <ele>1901.923</ele>
        <time>2018-12-28T01:35:05Z</time>
      </trkpt>
      <trkpt lat="36.536020" lon="-110.701190">
        <ele>1897.408</ele>
        <time>2018-12-28T01:35:25Z</time>
      </trkpt>
      <trkpt lat="36.534740" lon="-110.701230">
        <ele>1899.152</ele>
        <time>2018-12-28T01:35:45Z</time>
      </trkpt>
      <trkpt lat="36.533730" lon="-110.701260">
        <ele>1898.680</ele>
        <time>2018-12-28T01:36:05Z</time>
      </trkpt>
      <trkpt lat="36.532800" lon="-110.701290">
        <ele>1896.885</ele>
        <time>2018-12-28T01:36:25Z</time>
      </trkpt>
      <trkpt lat="36.532010" lon="-110.701320">
        <ele>1896.836</ele>
        <time>2018-12-28T01:36:45Z</time>
      </trkpt>
      <trkpt lat="36.531510" lon="-110.701340">
        <ele>1896.640</ele>
        <time>2018-12-28T01:37:05Z</time>
      </trkpt>
      <trkpt lat="36.530620" lon="-110.701360">
        <ele>1895.677</ele>
        <time>2018-12-28T01:37:25Z</time>
      </trkpt>
      <trkpt lat="36.529460" lon="-110.701400">
        <ele>1893.482</ele>
        <time>2018-12-28T01:37:45Z</time>
      </trkpt>
      <trkpt lat="36.528910" lon="-110.701430">
        <ele>1893.111</ele>
        <time>2018-12-28T01:38:05Z</time>
      </trkpt>
      <trkpt lat="36.528290" lon="-110.701470">
        <ele>1892.151</ele>
        <time>2018-12-28T01:38:25Z</time>
      </trkpt>
      <trkpt lat="36.527830" lon="-110.701520">
        <ele>1890.701</ele>
        <time>2018-12-28T01:38:45Z</time>
      </trkpt>
      <trkpt lat="36.527280" lon="-110.701590">
        <ele>1889.711</ele>
        <time>2018-12-28T01:39:05Z</time>
      </trkpt>
      <trkpt lat="36.526470" lon="-110.701750">
        <ele>1888.008</ele>
        <time>2018-12-28T01:39:25Z</time>
      </trkpt>
      <trkpt lat="36.525290" lon="-110.701970">
        <ele>1884.758</ele>
        <time>2018-12-28T01:39:45Z</time>
      </trkpt>
      <trkpt lat="36.524920" lon="-110.702040">
        <ele>1884.096</ele>
        <time>2018-12-28T01:40:05Z</time>
      </trkpt>
      <trkpt lat="36.524360" lon="-110.702160">
        <ele>1883.291</ele>
        <time>2018-12-28T01:40:25Z</time>
      </trkpt>
      <trkpt lat="36.523550" lon="-110.702310">
        <ele>1881.392</ele>
        <time>2018-12-28T01:40:45Z</time>
      </trkpt>
      <trkpt lat="36.522470" lon="-110.702510">
        <ele>1879.216</ele>
        <time>2018-12-28T01:41:05Z</time>
      </trkpt>
      <trkpt lat="36.521810" lon="-110.702640">
        <ele>1878.053</ele>
        <time>2018-12-28T01:41:25Z</time>
      </trkpt>
      <trkpt lat="36.520480" lon="-110.702910">
        <ele>1876.998</ele>
        <time>2018-12-28T01:41:45Z</time>
      </trkpt>
      <trkpt lat="36.515750" lon="-110.703810">
        <ele>1871.547</ele>
        <time>2018-12-28T01:42:05Z</time>
      </trkpt>
      <trkpt lat="36.512630" lon="-110.704410">
        <ele>1866.439</ele>
        <time>2018-12-28T01:42:25Z</time>
      </trkpt>
      <trkpt lat="36.512110" lon="-110.704510">
        <ele>1866.301</ele>
        <time>2018-12-28T01:42:45Z</time>
      </trkpt>
      <trkpt lat="36.509850" lon="-110.704950">
        <ele>1864.721</ele>
        <time>2018-12-28T01:43:05Z</time>
      </trkpt>
      <trkpt lat="36.505930" lon="-110.705680">
        <ele>1854.308</ele>
        <time>2018-12-28T01:43:25Z</time>
      </trkpt>
      <trkpt lat="36.505630" lon="-110.705740">
        <ele>1854.146</ele>
        <time>2018-12-28T01:43:45Z</time>
      </trkpt>
      <trkpt lat="36.505250" lon="-110.705800">
        <ele>1853.034</ele>
        <time>2018-12-28T01:44:05Z</time>
      </trkpt>
      <trkpt lat="36.504600" lon="-110.705850">
        <ele>1848.779</ele>
        <time>2018-12-28T01:44:25Z</time>
      </trkpt>
      <trkpt lat="36.504210" lon="-110.705850">
        <ele>1847.980</ele>
        <time>2018-12-28T01:44:45Z</time>
      </trkpt>
      <trkpt lat="36.503010" lon="-110.705810">
        <ele>1846.584</ele>
        <time>2018-12-28T01:45:05Z</time>
      </trkpt>
      <trkpt lat="36.501730" lon="-110.705780">
        <ele>1838.791</ele>
        <time>2018-12-28T01:45:25Z</time>
      </trkpt>
      <trkpt lat="36.500530" lon="-110.705730">
        <ele>1829.336</ele>
        <time>2018-12-28T01:45:45Z</time>
      </trkpt>
      <trkpt lat="36.500130" lon="-110.705710">
        <ele>1827.685</ele>
        <time>2018-12-28T01:46:05Z</time>
      </trkpt>
      <trkpt lat="36.499760" lon="-110.705690">
        <ele>1827.065</ele>
        <time>2018-12-28T01:46:25Z</time>
      </trkpt>
      <trkpt lat="36.498840" lon="-110.705660">
        <ele>1826.768</ele>
        <time>2018-12-28T01:46:45Z</time>
      </trkpt>
      <trkpt lat="36.496050" lon="-110.705600">
        <ele>1835.214</ele>
        <time>2018-12-28T01:47:05Z</time>
      </trkpt>
      <trkpt lat="36.494210" lon="-110.705530">
        <ele>1843.608</ele>
        <time>2018-12-28T01:47:25Z</time>
      </trkpt>
      <trkpt lat="36.492890" lon="-110.705500">
        <ele>1853.169</ele>
        <time>2018-12-28T01:47:45Z</time>
      </trkpt>
      <trkpt lat="36.491320" lon="-110.705450">
        <ele>1852.997</ele>
        <time>2018-12-28T01:48:05Z</time>
      </trkpt>
      <trkpt lat="36.490590" lon="-110.705420">
        <ele>1851.412</ele>
        <time>2018-12-28T01:48:25Z</time>
      </trkpt>
      <trkpt lat="36.488570" lon="-110.705360">
        <ele>1849.783</ele>
        <time>2018-12-28T01:48:45Z</time>
      </trkpt>
      <trkpt lat="36.487970" lon="-110.705350">
        <ele>1850.777</ele>
        <time>2018-12-28T01:49:05Z</time>
      </trkpt>
      <trkpt lat="36.487530" lon="-110.705320">
        <ele>1852.554</ele>
        <time>2018-12-28T01:49:25Z</time>
      </trkpt>
      <trkpt lat="36.487210" lon="-110.705310">
        <ele>1852.199</ele>
        <time>2018-12-28T01:49:45Z</time>
      </trkpt>
      <trkpt lat="36.486760" lon="-110.705300">
        <ele>1851.438</ele>
        <time>2018-12-28T01:50:05Z</time>
      </trkpt>
      <trkpt lat="36.485920" lon="-110.705260">
        <ele>1850.232</ele>
        <time>2018-12-28T01:50:25Z</time>
      </trkpt>
      <trkpt lat="36.485510" lon="-110.705230">
        <ele>1849.992</ele>
        <time>2018-12-28T01:50:45Z</time>
      </trkpt>
      <trkpt lat="36.485300" lon="-110.705200">
        <ele>1849.911</ele>
        <time>2018-12-28T01:51:05Z</time>
      </trkpt>
      <trkpt lat="36.485060" lon="-110.705150">
        <ele>1849.908</ele>
        <time>2018-12-28T01:51:25Z</time>
      </trkpt>
      <trkpt lat="36.484810" lon="-110.705110">
        <ele>1849.996</ele>
        <time>2018-12-28T01:51:45Z</time>
      </trkpt>
      <trkpt lat="36.484510" lon="-110.705030">
        <ele>1849.924</ele>
        <time>2018-12-28T01:52:05Z</time>
      </trkpt>
      <trkpt lat="36.484350" lon="-110.704970">
        <ele>1849.979</ele>
        <time>2018-12-28T01:52:25Z</time>
      </trkpt>
      <trkpt lat="36.484130" lon="-110.704900">
        <ele>1849.930</ele>
        <time>2018-12-28T01:52:45Z</time>
      </trkpt>
      <trkpt lat="36.483920" lon="-110.704820">
        <ele>1850.174</ele>
        <time>2018-12-28T01:53:05Z</time>
      </trkpt>
      <trkpt lat="36.483650" lon="-110.704710">
        <ele>1850.141</ele>
        <time>2018-12-28T01:53:25Z</time>
      </trkpt>
      <trkpt lat="36.483440" lon="-110.704600">
        <ele>1850.136</ele>
        <time>2018-12-28T01:53:45Z</time>
      </trkpt>
      <trkpt lat="36.483220" lon="-110.704490">
        <ele>1850.285</ele>
        <time>2018-12-28T01:54:05Z</time>
      </trkpt>
      <trkpt lat="36.482650" lon="-110.704180">
        <ele>1850.399</ele>
        <time>2018-12-28T01:54:25Z</time>
      </trkpt>
      <trkpt lat="36.480930" lon="-110.703220">
        <ele>1850.107</ele>
        <time>2018-12-28T01:54:45Z</time>
      </trkpt>
      <trkpt lat="36.480050" lon="-110.702720">
        <ele>1850.327</ele>
        <time>2018-12-28T01:55:05Z</time>
      </trkpt>
      <trkpt lat="36.478550" lon="-110.701880">
        <ele>1849.908</ele>
        <time>2018-12-28T01:55:25Z</time>
      </trkpt>
      <trkpt lat="36.477750" lon="-110.701430">
        <ele>1848.182</ele>
        <time>2018-12-28T01:55:45Z</time>
      </trkpt>
      <trkpt lat="36.476910" lon="-110.700970">
        <ele>1847.540</ele>
        <time>2018-12-28T01:56:05Z</time>
      </trkpt>
      <trkpt lat="36.476510" lon="-110.700740">
        <ele>1847.095</ele>
        <time>2018-12-28T01:56:25Z</time>
      </trkpt>
      <trkpt lat="36.475040" lon="-110.699920">
        <ele>1847.326</ele>
        <time>2018-12-28T01:56:45Z</time>
      </trkpt>
      <trkpt lat="36.474130" lon="-110.699410">
        <ele>1848.480</ele>
        <time>2018-12-28T01:57:05Z</time>
      </trkpt>
      <trkpt lat="36.473450" lon="-110.699010">
        <ele>1849.877</ele>
        <time>2018-12-28T01:57:25Z</time>
      </trkpt>
      <trkpt lat="36.472700" lon="-110.698600">
        <ele>1851.712</ele>
        <time>2018-12-28T01:57:45Z</time>
      </trkpt>
      <trkpt lat="36.472380" lon="-110.698420">
        <ele>1852.591</ele>
        <time>2018-12-28T01:58:05Z</time>
      </trkpt>
      <trkpt lat="36.470150" lon="-110.697160">
        <ele>1853.516</ele>
        <time>2018-12-28T01:58:25Z</time>
      </trkpt>
      <trkpt lat="36.469290" lon="-110.696670">
        <ele>1853.376</ele>
        <time>2018-12-28T01:58:45Z</time>
      </trkpt>
      <trkpt lat="36.468720" lon="-110.696350">
        <ele>1853.313</ele>
        <time>2018-12-28T01:59:05Z</time>
      </trkpt>
      <trkpt lat="36.468250" lon="-110.696080">
        <ele>1853.708</ele>
        <time>2018-12-28T01:59:25Z</time>
      </trkpt>
      <trkpt lat="36.467280" lon="-110.695540">
        <ele>1854.914</ele>
        <time>2018-12-28T01:59:45Z</time>
      </trkpt>
      <trkpt lat="36.464210" lon="-110.693840">
        <ele>1862.012</ele>
        <time>2018-12-28T02:00:05Z</time>
      </trkpt>
      <trkpt lat="36.461740" lon="-110.692460">
        <ele>1869.187</ele>
        <time>2018-12-28T02:00:25Z</time>
      </trkpt>
      <trkpt lat="36.461510" lon="-110.692330">
        <ele>1870.068</ele>
        <time>2018-12-28T02:00:45Z</time>
      </trkpt>
      <trkpt lat="36.461190" lon="-110.692140">
        <ele>1871.072</ele>
        <time>2018-12-28T02:01:05Z</time>
      </trkpt>
      <trkpt lat="36.461192" lon="-110.692145">
        <ele>1871.089</ele>
        <time>2018-12-28T02:01:25Z</time>
      </trkpt>
      <trkpt lat="36.461110" lon="-110.692090">
        <ele>1871.294</ele>
        <time>2018-12-28T02:01:45Z</time>
      </trkpt>
      <trkpt lat="36.461290" lon="-110.691670">
        <ele>1871.693</ele>
        <time>2018-12-28T02:02:05Z</time>
      </trkpt>
      <trkpt lat="36.461470" lon="-110.691250">
        <ele>1871.961</ele>
        <time>2018-12-28T02:02:25Z</time>
      </trkpt>
      <trkpt lat="36.461580" lon="-110.690980">
        <ele>1872.121</ele>
        <time>2018-12-28T02:02:45Z</time>
      </trkpt>
      <trkpt lat="36.461740" lon="-110.690640">
        <ele>1872.113</ele>
        <time>2018-12-28T02:03:05Z</time>
      </trkpt>
      <trkpt lat="36.461920" lon="-110.690320">
        <ele>1871.608</ele>
        <time>2018-12-28T02:03:25Z</time>
      </trkpt>
      <trkpt lat="36.462180" lon="-110.689720">
        <ele>1870.639</ele>
        <time>2018-12-28T02:03:45Z</time>
      </trkpt>
      <trkpt lat="36.462510" lon="-110.688910">
        <ele>1871.027</ele>
        <time>2018-12-28T02:04:05Z</time>
      </trkpt>
      <trkpt lat="36.462890" lon="-110.688020">
        <ele>1872.192</ele>
        <time>2018-12-28T02:04:25Z</time>
      </trkpt>
      <trkpt lat="36.463320" lon="-110.687020">
        <ele>1873.933</ele>
        <time>2018-12-28T02:04:45Z</time>
      </trkpt>
      <trkpt lat="36.464040" lon="-110.685300">
        <ele>1878.087</ele>
        <time>2018-12-28T02:05:05Z</time>
      </trkpt>
      <trkpt lat="36.464550" lon="-110.684100">
        <ele>1880.164</ele>
        <time>2018-12-28T02:05:25Z</time>
      </trkpt>
      <trkpt lat="36.464780" lon="-110.683540">
        <ele>1880.549</ele>
        <time>2018-12-28T02:05:45Z</time>
      </trkpt>
      <trkpt lat="36.465470" lon="-110.681910">
        <ele>1883.578</ele>
        <time>2018-12-28T02:06:05Z</time>
      </trkpt>
      <trkpt lat="36.466180" lon="-110.680220">
        <ele>1884.414</ele>
        <time>2018-12-28T02:06:25Z</time>
      </trkpt>
      <trkpt lat="36.467080" lon="-110.678090">
        <ele>1885.054</ele>
        <time>2018-12-28T02:06:45Z</time>
      </trkpt>
      <trkpt lat="36.468020" lon="-110.675870">
        <ele>1888.709</ele>
        <time>2018-12-28T02:07:05Z</time>
      </trkpt>
      <trkpt lat="36.468420" lon="-110.674930">
        <ele>1887.208</ele>
        <time>2018-12-28T02:07:25Z</time>
      </trkpt>
      <trkpt lat="36.469300" lon="-110.672830">
        <ele>1886.944</ele>
        <time>2018-12-28T02:07:45Z</time>
      </trkpt>
      <trkpt lat="36.469840" lon="-110.671530">
        <ele>1888.482</ele>
        <time>2018-12-28T02:08:05Z</time>
      </trkpt>
      <trkpt lat="36.470060" lon="-110.671000">
        <ele>1889.247</ele>
        <time>2018-12-28T02:08:25Z</time>
      </trkpt>
      <trkpt lat="36.470220" lon="-110.670640">
        <ele>1889.668</ele>
        <time>2018-12-28T02:08:45Z</time>
      </trkpt>
      <trkpt lat="36.470370" lon="-110.670250">
        <ele>1889.992</ele>
        <time>2018-12-28T02:09:05Z</time>
      </trkpt>
      <trkpt lat="36.470710" lon="-110.669450">
        <ele>1890.939</ele>
        <time>2018-12-28T02:09:25Z</time>
      </trkpt>
      <trkpt lat="36.471120" lon="-110.668490">
        <ele>1892.284</ele>
        <time>2018-12-28T02:09:45Z</time>
      </trkpt>
      <trkpt lat="36.471590" lon="-110.667400">
        <ele>1894.353</ele>
        <time>2018-12-28T02:10:05Z</time>
      </trkpt>
      <trkpt lat="36.471740" lon="-110.667020">
        <ele>1896.527</ele>
        <time>2018-12-28T02:10:25Z</time>
      </trkpt>
      <trkpt lat="36.471900" lon="-110.666640">
        <ele>1896.568</ele>
        <time>2018-12-28T02:10:45Z</time>
      </trkpt>
      <trkpt lat="36.472120" lon="-110.666100">
        <ele>1897.114</ele>
        <time>2018-12-28T02:11:05Z</time>
      </trkpt>
      <trkpt lat="36.472340" lon="-110.665590">
        <ele>1897.608</ele>
        <time>2018-12-28T02:11:25Z</time>
      </trkpt>
      <trkpt lat="36.472600" lon="-110.664970">
        <ele>1898.835</ele>
        <time>2018-12-28T02:11:45Z</time>
      </trkpt>
      <trkpt lat="36.472760" lon="-110.664590">
        <ele>1899.573</ele>
        <time>2018-12-28T02:12:05Z</time>
      </trkpt>
      <trkpt lat="36.472950" lon="-110.664120">
        <ele>1901.088</ele>
        <time>2018-12-28T02:12:25Z</time>
      </trkpt>
      <trkpt lat="36.473530" lon="-110.662750">
        <ele>1903.559</ele>
        <time>2018-12-28T02:12:45Z</time>
      </trkpt>
      <trkpt lat="36.474070" lon="-110.661480">
        <ele>1905.713</ele>
        <time>2018-12-28T02:13:05Z</time>
      </trkpt>
      <trkpt lat="36.474690" lon="-110.660020">
        <ele>1906.140</ele>
        <time>2018-12-28T02:13:25Z</time>
      </trkpt>
      <trkpt lat="36.474920" lon="-110.659460">
        <ele>1906.595</ele>
        <time>2018-12-28T02:13:45Z</time>
      </trkpt>
      <trkpt lat="36.475030" lon="-110.659180">
        <ele>1906.694</ele>
        <time>2018-12-28T02:14:05Z</time>
      </trkpt>
      <trkpt lat="36.475150" lon="-110.658920">
        <ele>1906.827</ele>
        <time>2018-12-28T02:14:25Z</time>
      </trkpt>
      <trkpt lat="36.475310" lon="-110.658550">
        <ele>1907.068</ele>
        <time>2018-12-28T02:14:45Z</time>
      </trkpt>
      <trkpt lat="36.475450" lon="-110.658210">
        <ele>1907.014</ele>
        <time>2018-12-28T02:15:05Z</time>
      </trkpt>
      <trkpt lat="36.475570" lon="-110.657910">
        <ele>1907.208</ele>
        <time>2018-12-28T02:15:25Z</time>
      </trkpt>
      <trkpt lat="36.475700" lon="-110.657610">
        <ele>1907.185</ele>
        <time>2018-12-28T02:15:45Z</time>
      </trkpt>
      <trkpt lat="36.475850" lon="-110.657260">
        <ele>1907.243</ele>
        <time>2018-12-28T02:16:05Z</time>
      </trkpt>
      <trkpt lat="36.476020" lon="-110.656850">
        <ele>1907.748</ele>
        <time>2018-12-28T02:16:25Z</time>
      </trkpt>
      <trkpt lat="36.476260" lon="-110.656270">
        <ele>1908.819</ele>
        <time>2018-12-28T02:16:45Z</time>
      </trkpt>
      <trkpt lat="36.476400" lon="-110.655930">
        <ele>1909.143</ele>
        <time>2018-12-28T02:17:05Z</time>
      </trkpt>
      <trkpt lat="36.476620" lon="-110.655390">
        <ele>1910.680</ele>
        <time>2018-12-28T02:17:25Z</time>
      </trkpt>
      <trkpt lat="36.476830" lon="-110.654920">
        <ele>1912.645</ele>
        <time>2018-12-28T02:17:45Z</time>
      </trkpt>
      <trkpt lat="36.477050" lon="-110.654450">
        <ele>1913.344</ele>
        <time>2018-12-28T02:18:05Z</time>
      </trkpt>
      <trkpt lat="36.477320" lon="-110.653940">
        <ele>1913.734</ele>
        <time>2018-12-28T02:18:25Z</time>
      </trkpt>
      <trkpt lat="36.477580" lon="-110.653520">
        <ele>1914.155</ele>
        <time>2018-12-28T02:18:45Z</time>
      </trkpt>
      <trkpt lat="36.477970" lon="-110.652870">
        <ele>1914.810</ele>
        <time>2018-12-28T02:19:05Z</time>
      </trkpt>
      <trkpt lat="36.478180" lon="-110.652530">
        <ele>1914.508</ele>
        <time>2018-12-28T02:19:25Z</time>
      </trkpt>
      <trkpt lat="36.478390" lon="-110.652190">
        <ele>1914.016</ele>
        <time>2018-12-28T02:19:45Z</time>
      </trkpt>
      <trkpt lat="36.478630" lon="-110.651800">
        <ele>1914.384</ele>
        <time>2018-12-28T02:20:05Z</time>
      </trkpt>
      <trkpt lat="36.478950" lon="-110.651270">
        <ele>1914.619</ele>
        <time>2018-12-28T02:20:25Z</time>
      </trkpt>
      <trkpt lat="36.479240" lon="-110.650810">
        <ele>1914.720</ele>
        <time>2018-12-28T02:20:45Z</time>
      </trkpt>
      <trkpt lat="36.479570" lon="-110.650290">
        <ele>1914.244</ele>
        <time>2018-12-28T02:21:05Z</time>
      </trkpt>
      <trkpt lat="36.480050" lon="-110.649490">
        <ele>1914.781</ele>
        <time>2018-12-28T02:21:25Z</time>
      </trkpt>
      <trkpt lat="36.480720" lon="-110.648420">
        <ele>1915.266</ele>
        <time>2018-12-28T02:21:45Z</time>
      </trkpt>
      <trkpt lat="36.481280" lon="-110.647550">
        <ele>1915.375</ele>
        <time>2018-12-28T02:22:05Z</time>
      </trkpt>
      <trkpt lat="36.481580" lon="-110.647060">
        <ele>1916.115</ele>
        <time>2018-12-28T02:22:25Z</time>
      </trkpt>
      <trkpt lat="36.481720" lon="-110.646830">
        <ele>1915.965</ele>
        <time>2018-12-28T02:22:45Z</time>
      </trkpt>
      <trkpt lat="36.483510" lon="-110.643940">
        <ele>1919.011</ele>
        <time>2018-12-28T02:23:05Z</time>
      </trkpt>
      <trkpt lat="36.483830" lon="-110.643430">
        <ele>1919.708</ele>
        <time>2018-12-28T02:23:25Z</time>
      </trkpt>
      <trkpt lat="36.484500" lon="-110.642360">
        <ele>1921.214</ele>
        <time>2018-12-28T02:23:45Z</time>
      </trkpt>
      <trkpt lat="36.485270" lon="-110.641100">
        <ele>1921.742</ele>
        <time>2018-12-28T02:24:05Z</time>
      </trkpt>
      <trkpt lat="36.486320" lon="-110.639420">
        <ele>1923.537</ele>
        <time>2018-12-28T02:24:25Z</time>
      </trkpt>
      <trkpt lat="36.486510" lon="-110.639100">
        <ele>1923.758</ele>
        <time>2018-12-28T02:24:45Z</time>
      </trkpt>
      <trkpt lat="36.487110" lon="-110.638130">
        <ele>1924.972</ele>
        <time>2018-12-28T02:25:05Z</time>
      </trkpt>
      <trkpt lat="36.487560" lon="-110.637420">
        <ele>1925.389</ele>
        <time>2018-12-28T02:25:25Z</time>
      </trkpt>
      <trkpt lat="36.487730" lon="-110.637160">
        <ele>1925.274</ele>
        <time>2018-12-28T02:25:45Z</time>
      </trkpt>
      <trkpt lat="36.488370" lon="-110.636130">
        <ele>1925.583</ele>
        <time>2018-12-28T02:26:05Z</time>
      </trkpt>
      <trkpt lat="36.489110" lon="-110.634910">
        <ele>1926.264</ele>
        <time>2018-12-28T02:26:25Z</time>
      </trkpt>
      <trkpt lat="36.489360" lon="-110.634510">
        <ele>1927.106</ele>
        <time>2018-12-28T02:26:45Z</time>
      </trkpt>
      <trkpt lat="36.489650" lon="-110.634040">
        <ele>1927.616</ele>
        <time>2018-12-28T02:27:05Z</time>
      </trkpt>
      <trkpt lat="36.489890" lon="-110.633670">
        <ele>1930.408</ele>
        <time>2018-12-28T02:27:25Z</time>
      </trkpt>
      <trkpt lat="36.490290" lon="-110.633080">
        <ele>1932.259</ele>
        <time>2018-12-28T02:27:45Z</time>
      </trkpt>
      <trkpt lat="36.491280" lon="-110.631600">
        <ele>1933.387</ele>
        <time>2018-12-28T02:28:05Z</time>
      </trkpt>
      <trkpt lat="36.491690" lon="-110.630990">
        <ele>1932.752</ele>
        <time>2018-12-28T02:28:25Z</time>
      </trkpt>
      <trkpt lat="36.492590" lon="-110.629650">
        <ele>1929.873</ele>
        <time>2018-12-28T02:28:45Z</time>
      </trkpt>
      <trkpt lat="36.492990" lon="-110.629040">
        <ele>1932.647</ele>
        <time>2018-12-28T02:29:05Z</time>
      </trkpt>
      <trkpt lat="36.493430" lon="-110.628400">
        <ele>1933.794</ele>
        <time>2018-12-28T02:29:25Z</time>
      </trkpt>
      <trkpt lat="36.493660" lon="-110.628050">
        <ele>1933.779</ele>
        <time>2018-12-28T02:29:45Z</time>
      </trkpt>
      <trkpt lat="36.494250" lon="-110.627170">
        <ele>1932.218</ele>
        <time>2018-12-28T02:30:05Z</time>
      </trkpt>
      <trkpt lat="36.494570" lon="-110.626690">
        <ele>1929.475</ele>
        <time>2018-12-28T02:30:25Z</time>
      </trkpt>
      <trkpt lat="36.494770" lon="-110.626390">
        <ele>1929.128</ele>
        <time>2018-12-28T02:30:45Z</time>
      </trkpt>
      <trkpt lat="36.495120" lon="-110.625880">
        <ele>1930.220</ele>
        <time>2018-12-28T02:31:05Z</time>
      </trkpt>
      <trkpt lat="36.496030" lon="-110.624520">
        <ele>1935.208</ele>
        <time>2018-12-28T02:31:25Z</time>
      </trkpt>
      <trkpt lat="36.496210" lon="-110.624270">
        <ele>1937.780</ele>
        <time>2018-12-28T02:31:45Z</time>
      </trkpt>
      <trkpt lat="36.496510" lon="-110.623810">
        <ele>1938.288</ele>
        <time>2018-12-28T02:32:05Z</time>
      </trkpt>
      <trkpt lat="36.497170" lon="-110.622840">
        <ele>1938.613</ele>
        <time>2018-12-28T02:32:25Z</time>
      </trkpt>
      <trkpt lat="36.498230" lon="-110.621240">
        <ele>1939.544</ele>
        <time>2018-12-28T02:32:45Z</time>
      </trkpt>
      <trkpt lat="36.498480" lon="-110.620880">
        <ele>1939.538</ele>
        <time>2018-12-28T02:33:05Z</time>
      </trkpt>
      <trkpt lat="36.499010" lon="-110.620070">
        <ele>1937.495</ele>
        <time>2018-12-28T02:33:25Z</time>
      </trkpt>
      <trkpt lat="36.499110" lon="-110.619920">
        <ele>1937.060</ele>
        <time>2018-12-28T02:33:45Z</time>
      </trkpt>
      <trkpt lat="36.499270" lon="-110.619700">
        <ele>1936.639</ele>
        <time>2018-12-28T02:34:05Z</time>
      </trkpt>
      <trkpt lat="36.499560" lon="-110.619260">
        <ele>1937.664</ele>
        <time>2018-12-28T02:34:25Z</time>
      </trkpt>
      <trkpt lat="36.500040" lon="-110.618530">
        <ele>1939.006</ele>
        <time>2018-12-28T02:34:45Z</time>
      </trkpt>
      <trkpt lat="36.500800" lon="-110.617410">
        <ele>1940.616</ele>
        <time>2018-12-28T02:35:05Z</time>
      </trkpt>
      <trkpt lat="36.503080" lon="-110.614010">
        <ele>1941.008</ele>
        <time>2018-12-28T02:35:25Z</time>
      </trkpt>
      <trkpt lat="36.503750" lon="-110.613020">
        <ele>1942.959</ele>
        <time>2018-12-28T02:35:45Z</time>
      </trkpt>
      <trkpt lat="36.504940" lon="-110.611250">
        <ele>1941.327</ele>
        <time>2018-12-28T02:36:05Z</time>
      </trkpt>
      <trkpt lat="36.505330" lon="-110.610670">
        <ele>1943.922</ele>
        <time>2018-12-28T02:36:25Z</time>
      </trkpt>
      <trkpt lat="36.506460" lon="-110.608960">
        <ele>1948.053</ele>
        <time>2018-12-28T02:36:45Z</time>
      </trkpt>
      <trkpt lat="36.507490" lon="-110.607450">
        <ele>1946.277</ele>
        <time>2018-12-28T02:37:05Z</time>
      </trkpt>
      <trkpt lat="36.507880" lon="-110.606850">
        <ele>1951.244</ele>
        <time>2018-12-28T02:37:25Z</time>
      </trkpt>
      <trkpt lat="36.508380" lon="-110.606110">
        <ele>1951.539</ele>
        <time>2018-12-28T02:37:45Z</time>
      </trkpt>
      <trkpt lat="36.508650" lon="-110.605720">
        <ele>1951.418</ele>
        <time>2018-12-28T02:38:05Z</time>
      </trkpt>
      <trkpt lat="36.508990" lon="-110.605210">
        <ele>1951.661</ele>
        <time>2018-12-28T02:38:25Z</time>
      </trkpt>
      <trkpt lat="36.512270" lon="-110.600320">
        <ele>1955.921</ele>
        <time>2018-12-28T02:38:45Z</time>
      </trkpt>
      <trkpt lat="36.512740" lon="-110.599640">
        <ele>1956.313</ele>
        <time>2018-12-28T02:39:05Z</time>
      </trkpt>
      <trkpt lat="36.514250" lon="-110.597380">
        <ele>1955.808</ele>
        <time>2018-12-28T02:39:25Z</time>
      </trkpt>
      <trkpt lat="36.514510" lon="-110.597000">
        <ele>1955.369</ele>
        <time>2018-12-28T02:39:45Z</time>
      </trkpt>
      <trkpt lat="36.514930" lon="-110.596390">
        <ele>1954.597</ele>
        <time>2018-12-28T02:40:05Z</time>
      </trkpt>
      <trkpt lat="36.515170" lon="-110.596020">
        <ele>1953.832</ele>
        <time>2018-12-28T02:40:25Z</time>
      </trkpt>
      <trkpt lat="36.515600" lon="-110.595370">
        <ele>1954.923</ele>
        <time>2018-12-28T02:40:45Z</time>
      </trkpt>
      <trkpt lat="36.516170" lon="-110.594530">
        <ele>1955.917</ele>
        <time>2018-12-28T02:41:05Z</time>
      </trkpt>
      <trkpt lat="36.516720" lon="-110.593700">
        <ele>1956.774</ele>
        <time>2018-12-28T02:41:25Z</time>
      </trkpt>
      <trkpt lat="36.517470" lon="-110.592590">
        <ele>1958.499</ele>
        <time>2018-12-28T02:41:45Z</time>
      </trkpt>
      <trkpt lat="36.517650" lon="-110.592300">
        <ele>1959.298</ele>
        <time>2018-12-28T02:42:05Z</time>
      </trkpt>
      <trkpt lat="36.517720" lon="-110.592190">
        <ele>1959.373</ele>
        <time>2018-12-28T02:42:25Z</time>
      </trkpt>
      <trkpt lat="36.517880" lon="-110.591920">
        <ele>1959.885</ele>
        <time>2018-12-28T02:42:45Z</time>
      </trkpt>
      <trkpt lat="36.518100" lon="-110.591520">
        <ele>1960.813</ele>
        <time>2018-12-28T02:43:05Z</time>
      </trkpt>
      <trkpt lat="36.518460" lon="-110.590860">
        <ele>1962.308</ele>
        <time>2018-12-28T02:43:25Z</time>
      </trkpt>
      <trkpt lat="36.519120" lon="-110.589620">
        <ele>1964.880</ele>
        <time>2018-12-28T02:43:45Z</time>
      </trkpt>
      <trkpt lat="36.519630" lon="-110.588660">
        <ele>1965.698</ele>
        <time>2018-12-28T02:44:05Z</time>
      </trkpt>
      <trkpt lat="36.520520" lon="-110.587000">
        <ele>1965.023</ele>
        <time>2018-12-28T02:44:25Z</time>
      </trkpt>
      <trkpt lat="36.521680" lon="-110.584830">
        <ele>1964.474</ele>
        <time>2018-12-28T02:44:45Z</time>
      </trkpt>
      <trkpt lat="36.522070" lon="-110.584080">
        <ele>1964.458</ele>
        <time>2018-12-28T02:45:05Z</time>
      </trkpt>
      <trkpt lat="36.522620" lon="-110.583060">
        <ele>1964.335</ele>
        <time>2018-12-28T02:45:25Z</time>
      </trkpt>
      <trkpt lat="36.523000" lon="-110.582340">
        <ele>1964.650</ele>
        <time>2018-12-28T02:45:45Z</time>
      </trkpt>
      <trkpt lat="36.523570" lon="-110.581270">
        <ele>1964.739</ele>
        <time>2018-12-28T02:46:05Z</time>
      </trkpt>
      <trkpt lat="36.523960" lon="-110.580530">
        <ele>1968.331</ele>
        <time>2018-12-28T02:46:25Z</time>
      </trkpt>
      <trkpt lat="36.524330" lon="-110.579830">
        <ele>1970.761</ele>
        <time>2018-12-28T02:46:45Z</time>
      </trkpt>
      <trkpt lat="36.524450" lon="-110.579600">
        <ele>1971.207</ele>
        <time>2018-12-28T02:47:05Z</time>
      </trkpt>
      <trkpt lat="36.524830" lon="-110.578910">
        <ele>1972.108</ele>
        <time>2018-12-28T02:47:25Z</time>
      </trkpt>
      <trkpt lat="36.525530" lon="-110.577580">
        <ele>1972.246</ele>
        <time>2018-12-28T02:47:45Z</time>
      </trkpt>
      <trkpt lat="36.525840" lon="-110.577010">
        <ele>1971.784</ele>
        <time>2018-12-28T02:48:05Z</time>
      </trkpt>
      <trkpt lat="36.526070" lon="-110.576580">
        <ele>1971.669</ele>
        <time>2018-12-28T02:48:25Z</time>
      </trkpt>
      <trkpt lat="36.526610" lon="-110.575550">
        <ele>1972.030</ele>
        <time>2018-12-28T02:48:45Z</time>
      </trkpt>
      <trkpt lat="36.527580" lon="-110.573730">
        <ele>1976.244</ele>
        <time>2018-12-28T02:49:05Z</time>
      </trkpt>
      <trkpt lat="36.527800" lon="-110.573320">
        <ele>1976.461</ele>
        <time>2018-12-28T02:49:25Z</time>
      </trkpt>
      <trkpt lat="36.527950" lon="-110.573050">
        <ele>1976.956</ele>
        <time>2018-12-28T02:49:45Z</time>
      </trkpt>
      <trkpt lat="36.528030" lon="-110.572910">
        <ele>1977.145</ele>
        <time>2018-12-28T02:50:05Z</time>
      </trkpt>
      <trkpt lat="36.528400" lon="-110.572190">
        <ele>1978.398</ele>
        <time>2018-12-28T02:50:25Z</time>
      </trkpt>
      <trkpt lat="36.528770" lon="-110.571510">
        <ele>1979.315</ele>
        <time>2018-12-28T02:50:45Z</time>
      </trkpt>
      <trkpt lat="36.529260" lon="-110.570590">
        <ele>1980.226</ele>
        <time>2018-12-28T02:51:05Z</time>
      </trkpt>
      <trkpt lat="36.529520" lon="-110.570100">
        <ele>1980.308</ele>
        <time>2018-12-28T02:51:25Z</time>
      </trkpt>
      <trkpt lat="36.529830" lon="-110.569490">
        <ele>1980.232</ele>
        <time>2018-12-28T02:51:45Z</time>
      </trkpt>
      <trkpt lat="36.530100" lon="-110.568990">
        <ele>1980.170</ele>
        <time>2018-12-28T02:52:05Z</time>
      </trkpt>
      <trkpt lat="36.530160" lon="-110.568870">
        <ele>1980.045</ele>
        <time>2018-12-28T02:52:25Z</time>
      </trkpt>
      <trkpt lat="36.530330" lon="-110.568540">
        <ele>1979.976</ele>
        <time>2018-12-28T02:52:45Z</time>
      </trkpt>
      <trkpt lat="36.530390" lon="-110.568410">
        <ele>1980.010</ele>
        <time>2018-12-28T02:53:05Z</time>
      </trkpt>
      <trkpt lat="36.530490" lon="-110.568230">
        <ele>1980.037</ele>
        <time>2018-12-28T02:53:25Z</time>
      </trkpt>
      <trkpt lat="36.530870" lon="-110.567490">
        <ele>1980.582</ele>
        <time>2018-12-28T02:53:45Z</time>
      </trkpt>
      <trkpt lat="36.531210" lon="-110.566860">
        <ele>1980.891</ele>
        <time>2018-12-28T02:54:05Z</time>
      </trkpt>
      <trkpt lat="36.531660" lon="-110.565970">
        <ele>1980.932</ele>
        <time>2018-12-28T02:54:25Z</time>
      </trkpt>
      <trkpt lat="36.531930" lon="-110.565490">
        <ele>1980.892</ele>
        <time>2018-12-28T02:54:45Z</time>
      </trkpt>
      <trkpt lat="36.532860" lon="-110.563700">
        <ele>1980.611</ele>
        <time>2018-12-28T02:55:05Z</time>
      </trkpt>
      <trkpt lat="36.533280" lon="-110.562910">
        <ele>1980.308</ele>
        <time>2018-12-28T02:55:25Z</time>
      </trkpt>
      <trkpt lat="36.533460" lon="-110.562560">
        <ele>1980.226</ele>
        <time>2018-12-28T02:55:45Z</time>
      </trkpt>
      <trkpt lat="36.533560" lon="-110.562370">
        <ele>1980.254</ele>
        <time>2018-12-28T02:56:05Z</time>
      </trkpt>
      <trkpt lat="36.533730" lon="-110.562040">
        <ele>1980.329</ele>
        <time>2018-12-28T02:56:25Z</time>
      </trkpt>
      <trkpt lat="36.534110" lon="-110.561310">
        <ele>1980.510</ele>
        <time>2018-12-28T02:56:45Z</time>
      </trkpt>
      <trkpt lat="36.534250" lon="-110.561050">
        <ele>1980.584</ele>
        <time>2018-12-28T02:57:05Z</time>
      </trkpt>
      <trkpt lat="36.534380" lon="-110.560790">
        <ele>1980.431</ele>
        <time>2018-12-28T02:57:25Z</time>
      </trkpt>
      <trkpt lat="36.534960" lon="-110.559690">
        <ele>1980.516</ele>
        <time>2018-12-28T02:57:45Z</time>
      </trkpt>
      <trkpt lat="36.535940" lon="-110.557800">
        <ele>1980.695</ele>
        <time>2018-12-28T02:58:05Z</time>
      </trkpt>
      <trkpt lat="36.536540" lon="-110.556650">
        <ele>1980.831</ele>
        <time>2018-12-28T02:58:25Z</time>
      </trkpt>
      <trkpt lat="36.537990" lon="-110.553860">
        <ele>1984.561</ele>
        <time>2018-12-28T02:58:45Z</time>
      </trkpt>
      <trkpt lat="36.538010" lon="-110.553830">
        <ele>1984.607</ele>
        <time>2018-12-28T02:59:05Z</time>
      </trkpt>
      <trkpt lat="36.538500" lon="-110.552890">
        <ele>1989.108</ele>
        <time>2018-12-28T02:59:25Z</time>
      </trkpt>
      <trkpt lat="36.539060" lon="-110.551820">
        <ele>1993.926</ele>
        <time>2018-12-28T02:59:45Z</time>
      </trkpt>
      <trkpt lat="36.539430" lon="-110.551120">
        <ele>1993.584</ele>
        <time>2018-12-28T03:00:05Z</time>
      </trkpt>
      <trkpt lat="36.539650" lon="-110.550690">
        <ele>1993.259</ele>
        <time>2018-12-28T03:00:25Z</time>
      </trkpt>
      <trkpt lat="36.540160" lon="-110.549720">
        <ele>1992.220</ele>
        <time>2018-12-28T03:00:45Z</time>
      </trkpt>
      <trkpt lat="36.540490" lon="-110.549090">
        <ele>1994.134</ele>
        <time>2018-12-28T03:01:05Z</time>
      </trkpt>
      <trkpt lat="36.540890" lon="-110.548310">
        <ele>1994.451</ele>
        <time>2018-12-28T03:01:25Z</time>
      </trkpt>
      <trkpt lat="36.541690" lon="-110.546770">
        <ele>1993.116</ele>
        <time>2018-12-28T03:01:45Z</time>
      </trkpt>
      <trkpt lat="36.542370" lon="-110.545460">
        <ele>1994.995</ele>
        <time>2018-12-28T03:02:05Z</time>
      </trkpt>
      <trkpt lat="36.542630" lon="-110.544980">
        <ele>1995.333</ele>
        <time>2018-12-28T03:02:25Z</time>
      </trkpt>
      <trkpt lat="36.542740" lon="-110.544750">
        <ele>1995.223</ele>
        <time>2018-12-28T03:02:45Z</time>
      </trkpt>
      <trkpt lat="36.542960" lon="-110.544320">
        <ele>1995.715</ele>
        <time>2018-12-28T03:03:05Z</time>
      </trkpt>
      <trkpt lat="36.543000" lon="-110.544240">
        <ele>1995.808</ele>
        <time>2018-12-28T03:03:25Z</time>
      </trkpt>
      <trkpt lat="36.543040" lon="-110.544160">
        <ele>1995.976</ele>
        <time>2018-12-28T03:03:45Z</time>
      </trkpt>
      <trkpt lat="36.543290" lon="-110.543610">
        <ele>1996.574</ele>
        <time>2018-12-28T03:04:05Z</time>
      </trkpt>
      <trkpt lat="36.543460" lon="-110.543220">
        <ele>1997.489</ele>
        <time>2018-12-28T03:04:25Z</time>
      </trkpt>
      <trkpt lat="36.543690" lon="-110.542710">
        <ele>1998.780</ele>
        <time>2018-12-28T03:04:45Z</time>
      </trkpt>
      <trkpt lat="36.543960" lon="-110.542070">
        <ele>2000.474</ele>
        <time>2018-12-28T03:05:05Z</time>
      </trkpt>
      <trkpt lat="36.544480" lon="-110.540880">
        <ele>2001.681</ele>
        <time>2018-12-28T03:05:25Z</time>
      </trkpt>
      <trkpt lat="36.544800" lon="-110.540150">
        <ele>2003.336</ele>
        <time>2018-12-28T03:05:45Z</time>
      </trkpt>
      <trkpt lat="36.546890" lon="-110.535330">
        <ele>2005.015</ele>
        <time>2018-12-28T03:06:05Z</time>
      </trkpt>
      <trkpt lat="36.547180" lon="-110.534680">
        <ele>2006.326</ele>
        <time>2018-12-28T03:06:25Z</time>
      </trkpt>
      <trkpt lat="36.547840" lon="-110.533150">
        <ele>2006.547</ele>
        <time>2018-12-28T03:06:45Z</time>
      </trkpt>
      <trkpt lat="36.547880" lon="-110.533070">
        <ele>2006.511</ele>
        <time>2018-12-28T03:07:05Z</time>
      </trkpt>
      <trkpt lat="36.548500" lon="-110.531630">
        <ele>2010.508</ele>
        <time>2018-12-28T03:07:25Z</time>
      </trkpt>
      <trkpt lat="36.548810" lon="-110.530940">
        <ele>2011.615</ele>
        <time>2018-12-28T03:07:45Z</time>
      </trkpt>
      <trkpt lat="36.549690" lon="-110.528890">
        <ele>2014.363</ele>
        <time>2018-12-28T03:08:05Z</time>
      </trkpt>
      <trkpt lat="36.551010" lon="-110.525880">
        <ele>2018.488</ele>
        <time>2018-12-28T03:08:25Z</time>
      </trkpt>
      <trkpt lat="36.551480" lon="-110.524790">
        <ele>2019.589</ele>
        <time>2018-12-28T03:08:45Z</time>
      </trkpt>
      <trkpt lat="36.551650" lon="-110.524400">
        <ele>2019.873</ele>
        <time>2018-12-28T03:09:05Z</time>
      </trkpt>
      <trkpt lat="36.551740" lon="-110.524190">
        <ele>2020.030</ele>
        <time>2018-12-28T03:09:25Z</time>
      </trkpt>
      <trkpt lat="36.552080" lon="-110.523400">
        <ele>2020.965</ele>
        <time>2018-12-28T03:09:45Z</time>
      </trkpt>
      <trkpt lat="36.552510" lon="-110.522430">
        <ele>2021.534</ele>
        <time>2018-12-28T03:10:05Z</time>
      </trkpt>
      <trkpt lat="36.552890" lon="-110.521530">
        <ele>2021.477</ele>
        <time>2018-12-28T03:10:25Z</time>
      </trkpt>
      <trkpt lat="36.553420" lon="-110.520330">
        <ele>2020.161</ele>
        <time>2018-12-28T03:10:45Z</time>
      </trkpt>
      <trkpt lat="36.554540" lon="-110.517750">
        <ele>2022.427</ele>
        <time>2018-12-28T03:11:05Z</time>
      </trkpt>
      <trkpt lat="36.555840" lon="-110.514780">
        <ele>2023.308</ele>
        <time>2018-12-28T03:11:25Z</time>
      </trkpt>
      <trkpt lat="36.556320" lon="-110.513670">
        <ele>2024.290</ele>
        <time>2018-12-28T03:11:45Z</time>
      </trkpt>
      <trkpt lat="36.556710" lon="-110.512770">
        <ele>2024.528</ele>
        <time>2018-12-28T03:12:05Z</time>
      </trkpt>
      <trkpt lat="36.557150" lon="-110.511750">
        <ele>2026.293</ele>
        <time>2018-12-28T03:12:25Z</time>
      </trkpt>
      <trkpt lat="36.557400" lon="-110.511170">
        <ele>2027.064</ele>
        <time>2018-12-28T03:12:45Z</time>
      </trkpt>
      <trkpt lat="36.558010" lon="-110.509790">
        <ele>2029.398</ele>
        <time>2018-12-28T03:13:05Z</time>
      </trkpt>
      <trkpt lat="36.558170" lon="-110.509410">
        <ele>2030.385</ele>
        <time>2018-12-28T03:13:25Z</time>
      </trkpt>
      <trkpt lat="36.558720" lon="-110.508140">
        <ele>2031.750</ele>
        <time>2018-12-28T03:13:45Z</time>
      </trkpt>
      <trkpt lat="36.559530" lon="-110.506290">
        <ele>2033.119</ele>
        <time>2018-12-28T03:14:05Z</time>
      </trkpt>
      <trkpt lat="36.559790" lon="-110.505680">
        <ele>2033.498</ele>
        <time>2018-12-28T03:14:25Z</time>
      </trkpt>
      <trkpt lat="36.560150" lon="-110.504870">
        <ele>2034.315</ele>
        <time>2018-12-28T03:14:45Z</time>
      </trkpt>
      <trkpt lat="36.560450" lon="-110.504170">
        <ele>2034.626</ele>
        <time>2018-12-28T03:15:05Z</time>
      </trkpt>
      <trkpt lat="36.560580" lon="-110.503860">
        <ele>2034.808</ele>
        <time>2018-12-28T03:15:25Z</time>
      </trkpt>
      <trkpt lat="36.560670" lon="-110.503650">
        <ele>2035.282</ele>
        <time>2018-12-28T03:15:45Z</time>
      </trkpt>
      <trkpt lat="36.560760" lon="-110.503440">
        <ele>2035.450</ele>
        <time>2018-12-28T03:16:05Z</time>
      </trkpt>
      <trkpt lat="36.560900" lon="-110.503130">
        <ele>2035.875</ele>
        <time>2018-12-28T03:16:25Z</time>
      </trkpt>
      <trkpt lat="36.561110" lon="-110.502660">
        <ele>2036.296</ele>
        <time>2018-12-28T03:16:45Z</time>
      </trkpt>
      <trkpt lat="36.561370" lon="-110.502060">
        <ele>2037.580</ele>
        <time>2018-12-28T03:17:05Z</time>
      </trkpt>
      <trkpt lat="36.561820" lon="-110.501010">
        <ele>2038.087</ele>
        <time>2018-12-28T03:17:25Z</time>
      </trkpt>
      <trkpt lat="36.562120" lon="-110.500330">
        <ele>2037.662</ele>
        <time>2018-12-28T03:17:45Z</time>
      </trkpt>
      <trkpt lat="36.563720" lon="-110.496650">
        <ele>2024.761</ele>
        <time>2018-12-28T03:18:05Z</time>
      </trkpt>
      <trkpt lat="36.563820" lon="-110.496420">
        <ele>2025.981</ele>
        <time>2018-12-28T03:18:25Z</time>
      </trkpt>
      <trkpt lat="36.563960" lon="-110.496110">
        <ele>2024.361</ele>
        <time>2018-12-28T03:18:45Z</time>
      </trkpt>
      <trkpt lat="36.564170" lon="-110.495600">
        <ele>2023.417</ele>
        <time>2018-12-28T03:19:05Z</time>
      </trkpt>
      <trkpt lat="36.564480" lon="-110.494900">
        <ele>2019.608</ele>
        <time>2018-12-28T03:19:25Z</time>
      </trkpt>
      <trkpt lat="36.564710" lon="-110.494370">
        <ele>2018.511</ele>
        <time>2018-12-28T03:19:45Z</time>
      </trkpt>
      <trkpt lat="36.565030" lon="-110.493630">
        <ele>2017.249</ele>
        <time>2018-12-28T03:20:05Z</time>
      </trkpt>
      <trkpt lat="36.565260" lon="-110.493120">
        <ele>2015.614</ele>
        <time>2018-12-28T03:20:25Z</time>
      </trkpt>
      <trkpt lat="36.565700" lon="-110.492100">
        <ele>2013.745</ele>
        <time>2018-12-28T03:20:45Z</time>
      </trkpt>
      <trkpt lat="36.566080" lon="-110.491220">
        <ele>2012.729</ele>
        <time>2018-12-28T03:21:05Z</time>
      </trkpt>
      <trkpt lat="36.566370" lon="-110.490550">
        <ele>2012.086</ele>
        <time>2018-12-28T03:21:25Z</time>
      </trkpt>
      <trkpt lat="36.566530" lon="-110.490170">
        <ele>2012.761</ele>
        <time>2018-12-28T03:21:45Z</time>
      </trkpt>
      <trkpt lat="36.567160" lon="-110.488720">
        <ele>2011.670</ele>
        <time>2018-12-28T03:22:05Z</time>
      </trkpt>
      <trkpt lat="36.567630" lon="-110.487640">
        <ele>2010.913</ele>
        <time>2018-12-28T03:22:25Z</time>
      </trkpt>
      <trkpt lat="36.567940" lon="-110.486920">
        <ele>2009.543</ele>
        <time>2018-12-28T03:22:45Z</time>
      </trkpt>
      <trkpt lat="36.568140" lon="-110.486490">
        <ele>2008.307</ele>
        <time>2018-12-28T03:23:05Z</time>
      </trkpt>
      <trkpt lat="36.568300" lon="-110.486120">
        <ele>2007.508</ele>
        <time>2018-12-28T03:23:25Z</time>
      </trkpt>
      <trkpt lat="36.568400" lon="-110.485890">
        <ele>2007.054</ele>
        <time>2018-12-28T03:23:45Z</time>
      </trkpt>
      <trkpt lat="36.568630" lon="-110.485350">
        <ele>2006.022</ele>
        <time>2018-12-28T03:24:05Z</time>
      </trkpt>
      <trkpt lat="36.569040" lon="-110.484410">
        <ele>2005.167</ele>
        <time>2018-12-28T03:24:25Z</time>
      </trkpt>
      <trkpt lat="36.569250" lon="-110.483930">
        <ele>2003.638</ele>
        <time>2018-12-28T03:24:45Z</time>
      </trkpt>
      <trkpt lat="36.569440" lon="-110.483490">
        <ele>2002.652</ele>
        <time>2018-12-28T03:25:05Z</time>
      </trkpt>
      <trkpt lat="36.569690" lon="-110.482920">
        <ele>2001.969</ele>
        <time>2018-12-28T03:25:25Z</time>
      </trkpt>
      <trkpt lat="36.569810" lon="-110.482650">
        <ele>2001.884</ele>
        <time>2018-12-28T03:25:45Z</time>
      </trkpt>
      <trkpt lat="36.569910" lon="-110.482410">
        <ele>2001.713</ele>
        <time>2018-12-28T03:26:05Z</time>
      </trkpt>
      <trkpt lat="36.570010" lon="-110.482210">
        <ele>2001.119</ele>
        <time>2018-12-28T03:26:25Z</time>
      </trkpt>
      <trkpt lat="36.570110" lon="-110.481990">
        <ele>2001.309</ele>
        <time>2018-12-28T03:26:45Z</time>
      </trkpt>
      <trkpt lat="36.570390" lon="-110.481460">
        <ele>2001.219</ele>
        <time>2018-12-28T03:27:05Z</time>
      </trkpt>
      <trkpt lat="36.570590" lon="-110.481120">
        <ele>2000.608</ele>
        <time>2018-12-28T03:27:25Z</time>
      </trkpt>
      <trkpt lat="36.570750" lon="-110.480860">
        <ele>2000.344</ele>
        <time>2018-12-28T03:27:45Z</time>
      </trkpt>
      <trkpt lat="36.570920" lon="-110.480590">
        <ele>2000.162</ele>
        <time>2018-12-28T03:28:05Z</time>
      </trkpt>
      <trkpt lat="36.571110" lon="-110.480290">
        <ele>1999.957</ele>
        <time>2018-12-28T03:28:25Z</time>
      </trkpt>
      <trkpt lat="36.571400" lon="-110.479890">
        <ele>1999.078</ele>
        <time>2018-12-28T03:28:45Z</time>
      </trkpt>
      <trkpt lat="36.571630" lon="-110.479610">
        <ele>1998.492</ele>
        <time>2018-12-28T03:29:05Z</time>
      </trkpt>
      <trkpt lat="36.571790" lon="-110.479410">
        <ele>1998.319</ele>
        <time>2018-12-28T03:29:25Z</time>
      </trkpt>
      <trkpt lat="36.571930" lon="-110.479250">
        <ele>1997.924</ele>
        <time>2018-12-28T03:29:45Z</time>
      </trkpt>
      <trkpt lat="36.572060" lon="-110.479110">
        <ele>1997.923</ele>
        <time>2018-12-28T03:30:05Z</time>
      </trkpt>
      <trkpt lat="36.572200" lon="-110.478960">
        <ele>1997.559</ele>
        <time>2018-12-28T03:30:25Z</time>
      </trkpt>
      <trkpt lat="36.572380" lon="-110.478780">
        <ele>1997.003</ele>
        <time>2018-12-28T03:30:45Z</time>
      </trkpt>
      <trkpt lat="36.572550" lon="-110.478610">
        <ele>1996.223</ele>
        <time>2018-12-28T03:31:05Z</time>
      </trkpt>
      <trkpt lat="36.572830" lon="-110.478360">
        <ele>1995.408</ele>
        <time>2018-12-28T03:31:25Z</time>
      </trkpt>
      <trkpt lat="36.573450" lon="-110.477800">
        <ele>1992.648</ele>
        <time>2018-12-28T03:31:45Z</time>
      </trkpt>
      <trkpt lat="36.574020" lon="-110.477280">
        <ele>1990.866</ele>
        <time>2018-12-28T03:32:05Z</time>
      </trkpt>
      <trkpt lat="36.574450" lon="-110.476900">
        <ele>1988.931</ele>
        <time>2018-12-28T03:32:25Z</time>
      </trkpt>
      <trkpt lat="36.574850" lon="-110.476550">
        <ele>1987.722</ele>
        <time>2018-12-28T03:32:45Z</time>
      </trkpt>
      <trkpt lat="36.575320" lon="-110.476130">
        <ele>1986.736</ele>
        <time>2018-12-28T03:33:05Z</time>
      </trkpt>
      <trkpt lat="36.576910" lon="-110.474710">
        <ele>1986.013</ele>
        <time>2018-12-28T03:33:25Z</time>
      </trkpt>
      <trkpt lat="36.577390" lon="-110.474290">
        <ele>1986.188</ele>
        <time>2018-12-28T03:33:45Z</time>
      </trkpt>
      <trkpt lat="36.577640" lon="-110.474080">
        <ele>1987.267</ele>
        <time>2018-12-28T03:34:05Z</time>
      </trkpt>
      <trkpt lat="36.577830" lon="-110.473930">
        <ele>1987.885</ele>
        <time>2018-12-28T03:34:25Z</time>
      </trkpt>
      <trkpt lat="36.578070" lon="-110.473750">
        <ele>1988.389</ele>
        <time>2018-12-28T03:34:45Z</time>
      </trkpt>
      <trkpt lat="36.578280" lon="-110.473600">
        <ele>1988.517</ele>
        <time>2018-12-28T03:35:05Z</time>
      </trkpt>
      <trkpt lat="36.578500" lon="-110.473460">
        <ele>1988.408</ele>
        <time>2018-12-28T03:35:25Z</time>
      </trkpt>
      <trkpt lat="36.578740" lon="-110.473300">
        <ele>1988.341</ele>
        <time>2018-12-28T03:35:45Z</time>
      </trkpt>
      <trkpt lat="36.578910" lon="-110.473200">
        <ele>1987.969</ele>
        <time>2018-12-28T03:36:05Z</time>
      </trkpt>
      <trkpt lat="36.579130" lon="-110.473060">
        <ele>1987.454</ele>
        <time>2018-12-28T03:36:25Z</time>
      </trkpt>
      <trkpt lat="36.579300" lon="-110.472970">
        <ele>1987.075</ele>
        <time>2018-12-28T03:36:45Z</time>
      </trkpt>
      <trkpt lat="36.579490" lon="-110.472870">
        <ele>1986.519</ele>
        <time>2018-12-28T03:37:05Z</time>
      </trkpt>
      <trkpt lat="36.579650" lon="-110.472790">
        <ele>1986.166</ele>
        <time>2018-12-28T03:37:25Z</time>
      </trkpt>
      <trkpt lat="36.579850" lon="-110.472690">
        <ele>1985.621</ele>
        <time>2018-12-28T03:37:45Z</time>
      </trkpt>
      <trkpt lat="36.580080" lon="-110.472590">
        <ele>1985.290</ele>
        <time>2018-12-28T03:38:05Z</time>
      </trkpt>
      <trkpt lat="36.580240" lon="-110.472520">
        <ele>1985.073</ele>
        <time>2018-12-28T03:38:25Z</time>
      </trkpt>
      <trkpt lat="36.580370" lon="-110.472460">
        <ele>1984.985</ele>
        <time>2018-12-28T03:38:45Z</time>
      </trkpt>
      <trkpt lat="36.580570" lon="-110.472380">
        <ele>1984.713</ele>
        <time>2018-12-28T03:39:05Z</time>
      </trkpt>
      <trkpt lat="36.581000" lon="-110.472240">
        <ele>1983.908</ele>
        <time>2018-12-28T03:39:25Z</time>
      </trkpt>
      <trkpt lat="36.581290" lon="-110.472150">
        <ele>1983.150</ele>
        <time>2018-12-28T03:39:45Z</time>
      </trkpt>
      <trkpt lat="36.581470" lon="-110.472090">
        <ele>1982.778</ele>
        <time>2018-12-28T03:40:05Z</time>
      </trkpt>
      <trkpt lat="36.581650" lon="-110.472050">
        <ele>1982.153</ele>
        <time>2018-12-28T03:40:25Z</time>
      </trkpt>
      <trkpt lat="36.581830" lon="-110.472000">
        <ele>1981.674</ele>
        <time>2018-12-28T03:40:45Z</time>
      </trkpt>
      <trkpt lat="36.582010" lon="-110.471960">
        <ele>1981.058</ele>
        <time>2018-12-28T03:41:05Z</time>
      </trkpt>
      <trkpt lat="36.582470" lon="-110.471880">
        <ele>1979.495</ele>
        <time>2018-12-28T03:41:25Z</time>
      </trkpt>
      <trkpt lat="36.583050" lon="-110.471790">
        <ele>1977.010</ele>
        <time>2018-12-28T03:41:45Z</time>
      </trkpt>
      <trkpt lat="36.583520" lon="-110.471760">
        <ele>1975.589</ele>
        <time>2018-12-28T03:42:05Z</time>
      </trkpt>
      <trkpt lat="36.583870" lon="-110.471750">
        <ele>1974.859</ele>
        <time>2018-12-28T03:42:25Z</time>
      </trkpt>
      <trkpt lat="36.584240" lon="-110.471750">
        <ele>1974.203</ele>
        <time>2018-12-28T03:42:45Z</time>
      </trkpt>
      <trkpt lat="36.584780" lon="-110.471790">
        <ele>1973.123</ele>
        <time>2018-12-28T03:43:05Z</time>
      </trkpt>
      <trkpt lat="36.585440" lon="-110.471830">
        <ele>1972.008</ele>
        <time>2018-12-28T03:43:25Z</time>
      </trkpt>
      <trkpt lat="36.586270" lon="-110.471880">
        <ele>1970.638</ele>
        <time>2018-12-28T03:43:45Z</time>
      </trkpt>
      <trkpt lat="36.586940" lon="-110.471930">
        <ele>1969.366</ele>
        <time>2018-12-28T03:44:05Z</time>
      </trkpt>
      <trkpt lat="36.587670" lon="-110.471970">
        <ele>1967.211</ele>
        <time>2018-12-28T03:44:25Z</time>
      </trkpt>
      <trkpt lat="36.588240" lon="-110.472000">
        <ele>1965.152</ele>
        <time>2018-12-28T03:44:45Z</time>
      </trkpt>
      <trkpt lat="36.588910" lon="-110.472030">
        <ele>1963.286</ele>
        <time>2018-12-28T03:45:05Z</time>
      </trkpt>
      <trkpt lat="36.589680" lon="-110.472080">
        <ele>1962.233</ele>
        <time>2018-12-28T03:45:25Z</time>
      </trkpt>
      <trkpt lat="36.590340" lon="-110.472110">
        <ele>1961.548</ele>
        <time>2018-12-28T03:45:45Z</time>
      </trkpt>
      <trkpt lat="36.591070" lon="-110.472150">
        <ele>1961.097</ele>
        <time>2018-12-28T03:46:05Z</time>
      </trkpt>
      <trkpt lat="36.591840" lon="-110.472190">
        <ele>1961.217</ele>
        <time>2018-12-28T03:46:25Z</time>
      </trkpt>
      <trkpt lat="36.593070" lon="-110.472270">
        <ele>1962.987</ele>
        <time>2018-12-28T03:46:45Z</time>
      </trkpt>
      <trkpt lat="36.594040" lon="-110.472310">
        <ele>1961.715</ele>
        <time>2018-12-28T03:47:05Z</time>
      </trkpt>
      <trkpt lat="36.594790" lon="-110.472360">
        <ele>1959.308</ele>
        <time>2018-12-28T03:47:25Z</time>
      </trkpt>
      <trkpt lat="36.596050" lon="-110.472420">
        <ele>1955.194</ele>
        <time>2018-12-28T03:47:45Z</time>
      </trkpt>
      <trkpt lat="36.596830" lon="-110.472450">
        <ele>1951.522</ele>
        <time>2018-12-28T03:48:05Z</time>
      </trkpt>
      <trkpt lat="36.597610" lon="-110.472500">
        <ele>1950.517</ele>
        <time>2018-12-28T03:48:25Z</time>
      </trkpt>
      <trkpt lat="36.598360" lon="-110.472550">
        <ele>1949.828</ele>
        <time>2018-12-28T03:48:45Z</time>
      </trkpt>
      <trkpt lat="36.599340" lon="-110.472610">
        <ele>1948.162</ele>
        <time>2018-12-28T03:49:05Z</time>
      </trkpt>
      <trkpt lat="36.600110" lon="-110.472650">
        <ele>1946.779</ele>
        <time>2018-12-28T03:49:25Z</time>
      </trkpt>
      <trkpt lat="36.601000" lon="-110.472700">
        <ele>1944.614</ele>
        <time>2018-12-28T03:49:45Z</time>
      </trkpt>
      <trkpt lat="36.601760" lon="-110.472750">
        <ele>1942.933</ele>
        <time>2018-12-28T03:50:05Z</time>
      </trkpt>
      <trkpt lat="36.602760" lon="-110.472810">
        <ele>1941.228</ele>
        <time>2018-12-28T03:50:25Z</time>
      </trkpt>
      <trkpt lat="36.604110" lon="-110.472890">
        <ele>1938.489</ele>
        <time>2018-12-28T03:50:45Z</time>
      </trkpt>
      <trkpt lat="36.605080" lon="-110.472940">
        <ele>1937.317</ele>
        <time>2018-12-28T03:51:05Z</time>
      </trkpt>
      <trkpt lat="36.605850" lon="-110.472980">
        <ele>1936.908</ele>
        <time>2018-12-28T03:51:25Z</time>
      </trkpt>
      <trkpt lat="36.606200" lon="-110.473000">
        <ele>1937.045</ele>
        <time>2018-12-28T03:51:45Z</time>
      </trkpt>
      <trkpt lat="36.606510" lon="-110.473020">
        <ele>1937.543</ele>
        <time>2018-12-28T03:52:05Z</time>
      </trkpt>
      <trkpt lat="36.607100" lon="-110.473060">
        <ele>1938.728</ele>
        <time>2018-12-28T03:52:25Z</time>
      </trkpt>
      <trkpt lat="36.607250" lon="-110.473070">
        <ele>1938.679</ele>
        <time>2018-12-28T03:52:45Z</time>
      </trkpt>
      <trkpt lat="36.607480" lon="-110.473070">
        <ele>1938.493</ele>
        <time>2018-12-28T03:53:05Z</time>
      </trkpt>
      <trkpt lat="36.607630" lon="-110.473070">
        <ele>1938.230</ele>
        <time>2018-12-28T03:53:25Z</time>
      </trkpt>
      <trkpt lat="36.607790" lon="-110.473070">
        <ele>1938.035</ele>
        <time>2018-12-28T03:53:45Z</time>
      </trkpt>
      <trkpt lat="36.608140" lon="-110.473050">
        <ele>1937.564</ele>
        <time>2018-12-28T03:54:05Z</time>
      </trkpt>
      <trkpt lat="36.608300" lon="-110.473040">
        <ele>1937.265</ele>
        <time>2018-12-28T03:54:25Z</time>
      </trkpt>
      <trkpt lat="36.608710" lon="-110.472990">
        <ele>1936.368</ele>
        <time>2018-12-28T03:54:45Z</time>
      </trkpt>
      <trkpt lat="36.608960" lon="-110.472950">
        <ele>1935.614</ele>
        <time>2018-12-28T03:55:05Z</time>
      </trkpt>
      <trkpt lat="36.609160" lon="-110.472920">
        <ele>1935.008</ele>
        <time>2018-12-28T03:55:25Z</time>
      </trkpt>
      <trkpt lat="36.609440" lon="-110.472860">
        <ele>1934.229</ele>
        <time>2018-12-28T03:55:45Z</time>
      </trkpt>
      <trkpt lat="36.609610" lon="-110.472820">
        <ele>1933.767</ele>
        <time>2018-12-28T03:56:05Z</time>
      </trkpt>
      <trkpt lat="36.610110" lon="-110.472690">
        <ele>1932.472</ele>
        <time>2018-12-28T03:56:25Z</time>
      </trkpt>
      <trkpt lat="36.610290" lon="-110.472640">
        <ele>1931.963</ele>
        <time>2018-12-28T03:56:45Z</time>
      </trkpt>
      <trkpt lat="36.610440" lon="-110.472590">
        <ele>1931.537</ele>
        <time>2018-12-28T03:57:05Z</time>
      </trkpt>
      <trkpt lat="36.610620" lon="-110.472530">
        <ele>1931.064</ele>
        <time>2018-12-28T03:57:25Z</time>
      </trkpt>
      <trkpt lat="36.610750" lon="-110.472490">
        <ele>1930.789</ele>
        <time>2018-12-28T03:57:45Z</time>
      </trkpt>
      <trkpt lat="36.611040" lon="-110.472380">
        <ele>1929.758</ele>
        <time>2018-12-28T03:58:05Z</time>
      </trkpt>
      <trkpt lat="36.611380" lon="-110.472240">
        <ele>1928.664</ele>
        <time>2018-12-28T03:58:25Z</time>
      </trkpt>
      <trkpt lat="36.611590" lon="-110.472140">
        <ele>1927.706</ele>
        <time>2018-12-28T03:58:45Z</time>
      </trkpt>
      <trkpt lat="36.611910" lon="-110.471990">
        <ele>1927.216</ele>
        <time>2018-12-28T03:59:05Z</time>
      </trkpt>
      <trkpt lat="36.612180" lon="-110.471850">
        <ele>1926.908</ele>
        <time>2018-12-28T03:59:25Z</time>
      </trkpt>
      <trkpt lat="36.612380" lon="-110.471740">
        <ele>1926.819</ele>
        <time>2018-12-28T03:59:45Z</time>
      </trkpt>
      <trkpt lat="36.612870" lon="-110.471450">
        <ele>1926.627</ele>
        <time>2018-12-28T04:00:05Z</time>
      </trkpt>
      <trkpt lat="36.613200" lon="-110.471220">
        <ele>1926.592</ele>
        <time>2018-12-28T04:00:25Z</time>
      </trkpt>
      <trkpt lat="36.613580" lon="-110.470950">
        <ele>1926.323</ele>
        <time>2018-12-28T04:00:45Z</time>
      </trkpt>
      <trkpt lat="36.613860" lon="-110.470730">
        <ele>1926.337</ele>
        <time>2018-12-28T04:01:05Z</time>
      </trkpt>
      <trkpt lat="36.614180" lon="-110.470470">
        <ele>1926.364</ele>
        <time>2018-12-28T04:01:25Z</time>
      </trkpt>
      <trkpt lat="36.614530" lon="-110.470150">
        <ele>1926.489</ele>
        <time>2018-12-28T04:01:45Z</time>
      </trkpt>
      <trkpt lat="36.614820" lon="-110.469880">
        <ele>1926.188</ele>
        <time>2018-12-28T04:02:05Z</time>
      </trkpt>
      <trkpt lat="36.615240" lon="-110.469460">
        <ele>1925.818</ele>
        <time>2018-12-28T04:02:25Z</time>
      </trkpt>
      <trkpt lat="36.615870" lon="-110.468840">
        <ele>1925.198</ele>
        <time>2018-12-28T04:02:45Z</time>
      </trkpt>
      <trkpt lat="36.616190" lon="-110.468520">
        <ele>1924.617</ele>
        <time>2018-12-28T04:03:05Z</time>
      </trkpt>
      <trkpt lat="36.617130" lon="-110.467590">
        <ele>1922.908</ele>
        <time>2018-12-28T04:03:25Z</time>
      </trkpt>
      <trkpt lat="36.617790" lon="-110.466930">
        <ele>1923.044</ele>
        <time>2018-12-28T04:03:45Z</time>
      </trkpt>
      <trkpt lat="36.618030" lon="-110.466690">
        <ele>1923.362</ele>
        <time>2018-12-28T04:04:05Z</time>
      </trkpt>
      <trkpt lat="36.618510" lon="-110.466220">
        <ele>1924.467</ele>
        <time>2018-12-28T04:04:25Z</time>
      </trkpt>
      <trkpt lat="36.618740" lon="-110.465990">
        <ele>1925.068</ele>
        <time>2018-12-28T04:04:45Z</time>
      </trkpt>
      <trkpt lat="36.619420" lon="-110.465330">
        <ele>1924.772</ele>
        <time>2018-12-28T04:05:05Z</time>
      </trkpt>
      <trkpt lat="36.619790" lon="-110.464960">
        <ele>1923.239</ele>
        <time>2018-12-28T04:05:25Z</time>
      </trkpt>
      <trkpt lat="36.619950" lon="-110.464790">
        <ele>1922.374</ele>
        <time>2018-12-28T04:05:45Z</time>
      </trkpt>
      <trkpt lat="36.620200" lon="-110.464520">
        <ele>1920.893</ele>
        <time>2018-12-28T04:06:05Z</time>
      </trkpt>
      <trkpt lat="36.620370" lon="-110.464330">
        <ele>1920.073</ele>
        <time>2018-12-28T04:06:25Z</time>
      </trkpt>
      <trkpt lat="36.620650" lon="-110.464000">
        <ele>1918.785</ele>
        <time>2018-12-28T04:06:45Z</time>
      </trkpt>
      <trkpt lat="36.620970" lon="-110.463610">
        <ele>1916.613</ele>
        <time>2018-12-28T04:07:05Z</time>
      </trkpt>
      <trkpt lat="36.621110" lon="-110.463430">
        <ele>1915.608</ele>
        <time>2018-12-28T04:07:25Z</time>
      </trkpt>
      <trkpt lat="36.621600" lon="-110.462830">
        <ele>1912.190</ele>
        <time>2018-12-28T04:07:45Z</time>
      </trkpt>
      <trkpt lat="36.621980" lon="-110.462360">
        <ele>1910.798</ele>
        <time>2018-12-28T04:08:05Z</time>
      </trkpt>
      <trkpt lat="36.622360" lon="-110.461890">
        <ele>1910.493</ele>
        <time>2018-12-28T04:08:25Z</time>
      </trkpt>
      <trkpt lat="36.622550" lon="-110.461650">
        <ele>1910.514</ele>
        <time>2018-12-28T04:08:45Z</time>
      </trkpt>
      <trkpt lat="36.622760" lon="-110.461400">
        <ele>1910.368</ele>
        <time>2018-12-28T04:09:05Z</time>
      </trkpt>
      <trkpt lat="36.622920" lon="-110.461200">
        <ele>1910.015</ele>
        <time>2018-12-28T04:09:25Z</time>
      </trkpt>
      <trkpt lat="36.623070" lon="-110.461020">
        <ele>1909.920</ele>
        <time>2018-12-28T04:09:45Z</time>
      </trkpt>
      <trkpt lat="36.623190" lon="-110.460870">
        <ele>1909.699</ele>
        <time>2018-12-28T04:10:05Z</time>
      </trkpt>
      <trkpt lat="36.623430" lon="-110.460580">
        <ele>1908.918</ele>
        <time>2018-12-28T04:10:25Z</time>
      </trkpt>
      <trkpt lat="36.623530" lon="-110.460450">
        <ele>1908.798</ele>
        <time>2018-12-28T04:10:45Z</time>
      </trkpt>
      <trkpt lat="36.623720" lon="-110.460210">
        <ele>1908.217</ele>
        <time>2018-12-28T04:11:05Z</time>
      </trkpt>
      <trkpt lat="36.624000" lon="-110.459880">
        <ele>1908.108</ele>
        <time>2018-12-28T04:11:25Z</time>
      </trkpt>
      <trkpt lat="36.624430" lon="-110.459360">
        <ele>1908.834</ele>
        <time>2018-12-28T04:11:45Z</time>
      </trkpt>
      <trkpt lat="36.624890" lon="-110.458800">
        <ele>1909.952</ele>
        <time>2018-12-28T04:12:05Z</time>
      </trkpt>
      <trkpt lat="36.625190" lon="-110.458430">
        <ele>1910.877</ele>
        <time>2018-12-28T04:12:25Z</time>
      </trkpt>
      <trkpt lat="36.625330" lon="-110.458260">
        <ele>1911.268</ele>
        <time>2018-12-28T04:12:45Z</time>
      </trkpt>
      <trkpt lat="36.625430" lon="-110.458130">
        <ele>1911.522</ele>
        <time>2018-12-28T04:13:05Z</time>
      </trkpt>
      <trkpt lat="36.625670" lon="-110.457850">
        <ele>1912.129</ele>
        <time>2018-12-28T04:13:25Z</time>
      </trkpt>
      <trkpt lat="36.625900" lon="-110.457560">
        <ele>1912.984</ele>
        <time>2018-12-28T04:13:45Z</time>
      </trkpt>
      <trkpt lat="36.626160" lon="-110.457250">
        <ele>1913.123</ele>
        <time>2018-12-28T04:14:05Z</time>
      </trkpt>
      <trkpt lat="36.626350" lon="-110.457010">
        <ele>1912.757</ele>
        <time>2018-12-28T04:14:25Z</time>
      </trkpt>
      <trkpt lat="36.626880" lon="-110.456350">
        <ele>1910.900</ele>
        <time>2018-12-28T04:14:45Z</time>
      </trkpt>
      <trkpt lat="36.627270" lon="-110.455860">
        <ele>1910.220</ele>
        <time>2018-12-28T04:15:05Z</time>
      </trkpt>
      <trkpt lat="36.627820" lon="-110.455190">
        <ele>1910.608</ele>
        <time>2018-12-28T04:15:25Z</time>
      </trkpt>
      <trkpt lat="36.628460" lon="-110.454410">
        <ele>1912.058</ele>
        <time>2018-12-28T04:15:45Z</time>
      </trkpt>
      <trkpt lat="36.628920" lon="-110.453840">
        <ele>1913.226</ele>
        <time>2018-12-28T04:16:05Z</time>
      </trkpt>
      <trkpt lat="36.629470" lon="-110.453110">
        <ele>1912.061</ele>
        <time>2018-12-28T04:16:25Z</time>
      </trkpt>
      <trkpt lat="36.631150" lon="-110.451040">
        <ele>1911.252</ele>
        <time>2018-12-28T04:16:45Z</time>
      </trkpt>
      <trkpt lat="36.631490" lon="-110.450610">
        <ele>1912.626</ele>
        <time>2018-12-28T04:17:05Z</time>
      </trkpt>
      <trkpt lat="36.631830" lon="-110.450150">
        <ele>1912.643</ele>
        <time>2018-12-28T04:17:25Z</time>
      </trkpt>
      <trkpt lat="36.632650" lon="-110.449080">
        <ele>1906.878</ele>
        <time>2018-12-28T04:17:45Z</time>
      </trkpt>
      <trkpt lat="36.632910" lon="-110.448740">
        <ele>1903.357</ele>
        <time>2018-12-28T04:18:05Z</time>
      </trkpt>
      <trkpt lat="36.633430" lon="-110.448040">
        <ele>1900.822</ele>
        <time>2018-12-28T04:18:25Z</time>
      </trkpt>
      <trkpt lat="36.634430" lon="-110.446730">
        <ele>1899.462</ele>
        <time>2018-12-28T04:18:45Z</time>
      </trkpt>
      <trkpt lat="36.634700" lon="-110.446380">
        <ele>1899.308</ele>
        <time>2018-12-28T04:19:05Z</time>
      </trkpt>
      <trkpt lat="36.635220" lon="-110.445690">
        <ele>1900.408</ele>
        <time>2018-12-28T04:19:25Z</time>
      </trkpt>
      <trkpt lat="36.635750" lon="-110.444990">
        <ele>1899.965</ele>
        <time>2018-12-28T04:19:45Z</time>
      </trkpt>
      <trkpt lat="36.636710" lon="-110.443730">
        <ele>1895.953</ele>
        <time>2018-12-28T04:20:05Z</time>
      </trkpt>
      <trkpt lat="36.637150" lon="-110.443150">
        <ele>1897.578</ele>
        <time>2018-12-28T04:20:25Z</time>
      </trkpt>
      <trkpt lat="36.637530" lon="-110.442650">
        <ele>1900.489</ele>
        <time>2018-12-28T04:20:45Z</time>
      </trkpt>
      <trkpt lat="36.637900" lon="-110.442160">
        <ele>1901.733</ele>
        <time>2018-12-28T04:21:05Z</time>
      </trkpt>
      <trkpt lat="36.638090" lon="-110.441900">
        <ele>1902.090</ele>
        <time>2018-12-28T04:21:25Z</time>
      </trkpt>
      <trkpt lat="36.638270" lon="-110.441670">
        <ele>1902.545</ele>
        <time>2018-12-28T04:21:45Z</time>
      </trkpt>
      <trkpt lat="36.638800" lon="-110.440960">
        <ele>1906.014</ele>
        <time>2018-12-28T04:22:05Z</time>
      </trkpt>
      <trkpt lat="36.639170" lon="-110.440470">
        <ele>1907.887</ele>
        <time>2018-12-28T04:22:25Z</time>
      </trkpt>
      <trkpt lat="36.639500" lon="-110.440030">
        <ele>1908.642</ele>
        <time>2018-12-28T04:22:45Z</time>
      </trkpt>
      <trkpt lat="36.639830" lon="-110.439600">
        <ele>1909.326</ele>
        <time>2018-12-28T04:23:05Z</time>
      </trkpt>
      <trkpt lat="36.640270" lon="-110.439010">
        <ele>1910.808</ele>
        <time>2018-12-28T04:23:25Z</time>
      </trkpt>
      <trkpt lat="36.640500" lon="-110.438710">
        <ele>1911.731</ele>
        <time>2018-12-28T04:23:45Z</time>
      </trkpt>
      <trkpt lat="36.640810" lon="-110.438320">
        <ele>1912.959</ele>
        <time>2018-12-28T04:24:05Z</time>
      </trkpt>
      <trkpt lat="36.641080" lon="-110.438010">
        <ele>1913.854</ele>
        <time>2018-12-28T04:24:25Z</time>
      </trkpt>
      <trkpt lat="36.641520" lon="-110.437540">
        <ele>1914.445</ele>
        <time>2018-12-28T04:24:45Z</time>
      </trkpt>
      <trkpt lat="36.641760" lon="-110.437310">
        <ele>1914.289</ele>
        <time>2018-12-28T04:25:05Z</time>
      </trkpt>
      <trkpt lat="36.641960" lon="-110.437110">
        <ele>1914.276</ele>
        <time>2018-12-28T04:25:25Z</time>
      </trkpt>
      <trkpt lat="36.642150" lon="-110.436940">
        <ele>1914.551</ele>
        <time>2018-12-28T04:25:45Z</time>
      </trkpt>
      <trkpt lat="36.642510" lon="-110.436630">
        <ele>1915.530</ele>
        <time>2018-12-28T04:26:05Z</time>
      </trkpt>
      <trkpt lat="36.642920" lon="-110.436310">
        <ele>1916.493</ele>
        <time>2018-12-28T04:26:25Z</time>
      </trkpt>
      <trkpt lat="36.643190" lon="-110.436110">
        <ele>1916.665</ele>
        <time>2018-12-28T04:26:45Z</time>
      </trkpt>
      <trkpt lat="36.643640" lon="-110.435760">
        <ele>1918.121</ele>
        <time>2018-12-28T04:27:05Z</time>
      </trkpt>
      <trkpt lat="36.643910" lon="-110.435560">
        <ele>1918.508</ele>
        <time>2018-12-28T04:27:25Z</time>
      </trkpt>
      <trkpt lat="36.644380" lon="-110.435200">
        <ele>1918.212</ele>
        <time>2018-12-28T04:27:45Z</time>
      </trkpt>
      <trkpt lat="36.644720" lon="-110.434930">
        <ele>1917.390</ele>
        <time>2018-12-28T04:28:05Z</time>
      </trkpt>
      <trkpt lat="36.644890" lon="-110.434790">
        <ele>1917.075</ele>
        <time>2018-12-28T04:28:25Z</time>
      </trkpt>
      <trkpt lat="36.645210" lon="-110.434500">
        <ele>1917.386</ele>
        <time>2018-12-28T04:28:45Z</time>
      </trkpt>
      <trkpt lat="36.645340" lon="-110.434380">
        <ele>1916.970</ele>
        <time>2018-12-28T04:29:05Z</time>
      </trkpt>
      <trkpt lat="36.645500" lon="-110.434230">
        <ele>1916.147</ele>
        <time>2018-12-28T04:29:25Z</time>
      </trkpt>
      <trkpt lat="36.645760" lon="-110.433970">
        <ele>1914.912</ele>
        <time>2018-12-28T04:29:45Z</time>
      </trkpt>
      <trkpt lat="36.645940" lon="-110.433770">
        <ele>1913.381</ele>
        <time>2018-12-28T04:30:05Z</time>
      </trkpt>
      <trkpt lat="36.646080" lon="-110.433630">
        <ele>1912.119</ele>
        <time>2018-12-28T04:30:25Z</time>
      </trkpt>
      <trkpt lat="36.646230" lon="-110.433440">
        <ele>1910.209</ele>
        <time>2018-12-28T04:30:45Z</time>
      </trkpt>
      <trkpt lat="36.646350" lon="-110.433300">
        <ele>1906.919</ele>
        <time>2018-12-28T04:31:05Z</time>
      </trkpt>
      <trkpt lat="36.646890" lon="-110.432680">
        <ele>1902.808</ele>
        <time>2018-12-28T04:31:25Z</time>
      </trkpt>
      <trkpt lat="36.647900" lon="-110.431490">
        <ele>1898.644</ele>
        <time>2018-12-28T04:31:45Z</time>
      </trkpt>
      <trkpt lat="36.648590" lon="-110.430690">
        <ele>1897.672</ele>
        <time>2018-12-28T04:32:05Z</time>
      </trkpt>
      <trkpt lat="36.649120" lon="-110.430070">
        <ele>1898.927</ele>
        <time>2018-12-28T04:32:25Z</time>
      </trkpt>
      <trkpt lat="36.650060" lon="-110.428970">
        <ele>1897.088</ele>
        <time>2018-12-28T04:32:45Z</time>
      </trkpt>
      <trkpt lat="36.650770" lon="-110.428120">
        <ele>1896.992</ele>
        <time>2018-12-28T04:33:05Z</time>
      </trkpt>
      <trkpt lat="36.651380" lon="-110.427420">
        <ele>1890.339</ele>
        <time>2018-12-28T04:33:25Z</time>
      </trkpt>
      <trkpt lat="36.652100" lon="-110.426580">
        <ele>1888.524</ele>
        <time>2018-12-28T04:33:45Z</time>
      </trkpt>
      <trkpt lat="36.652480" lon="-110.426150">
        <ele>1888.783</ele>
        <time>2018-12-28T04:34:05Z</time>
      </trkpt>
      <trkpt lat="36.652650" lon="-110.425960">
        <ele>1881.869</ele>
        <time>2018-12-28T04:34:25Z</time>
      </trkpt>
      <trkpt lat="36.652800" lon="-110.425800">
        <ele>1884.004</ele>
        <time>2018-12-28T04:34:45Z</time>
      </trkpt>
      <trkpt lat="36.652950" lon="-110.425660">
        <ele>1880.124</ele>
        <time>2018-12-28T04:35:05Z</time>
      </trkpt>
      <trkpt lat="36.653060" lon="-110.425560">
        <ele>1883.208</ele>
        <time>2018-12-28T04:35:25Z</time>
      </trkpt>
      <trkpt lat="36.653290" lon="-110.425350">
        <ele>1881.859</ele>
        <time>2018-12-28T04:35:45Z</time>
      </trkpt>
      <trkpt lat="36.653470" lon="-110.425190">
        <ele>1879.427</ele>
        <time>2018-12-28T04:36:05Z</time>
      </trkpt>
      <trkpt lat="36.653690" lon="-110.425010">
        <ele>1880.942</ele>
        <time>2018-12-28T04:36:25Z</time>
      </trkpt>
      <trkpt lat="36.654150" lon="-110.424630">
        <ele>1872.863</ele>
        <time>2018-12-28T04:36:45Z</time>
      </trkpt>
      <trkpt lat="36.654900" lon="-110.424040">
        <ele>1860.217</ele>
        <time>2018-12-28T04:37:05Z</time>
      </trkpt>
      <trkpt lat="36.655690" lon="-110.423410">
        <ele>1856.234</ele>
        <time>2018-12-28T04:37:25Z</time>
      </trkpt>
      <trkpt lat="36.656300" lon="-110.422940">
        <ele>1854.689</ele>
        <time>2018-12-28T04:37:45Z</time>
      </trkpt>
      <trkpt lat="36.656990" lon="-110.422400">
        <ele>1862.818</ele>
        <time>2018-12-28T04:38:05Z</time>
      </trkpt>
      <trkpt lat="36.657830" lon="-110.421740">
        <ele>1872.564</ele>
        <time>2018-12-28T04:38:25Z</time>
      </trkpt>
      <trkpt lat="36.658810" lon="-110.420970">
        <ele>1878.706</ele>
        <time>2018-12-28T04:38:45Z</time>
      </trkpt>
      <trkpt lat="36.659610" lon="-110.420350">
        <ele>1880.216</ele>
        <time>2018-12-28T04:39:05Z</time>
      </trkpt>
      <trkpt lat="36.660360" lon="-110.419740">
        <ele>1883.208</ele>
        <time>2018-12-28T04:39:25Z</time>
      </trkpt>
      <trkpt lat="36.660540" lon="-110.419610">
        <ele>1883.049</ele>
        <time>2018-12-28T04:39:45Z</time>
      </trkpt>
      <trkpt lat="36.660740" lon="-110.419430">
        <ele>1882.557</ele>
        <time>2018-12-28T04:40:05Z</time>
      </trkpt>
      <trkpt lat="36.661000" lon="-110.419200">
        <ele>1880.832</ele>
        <time>2018-12-28T04:40:25Z</time>
      </trkpt>
      <trkpt lat="36.661120" lon="-110.419090">
        <ele>1881.693</ele>
        <time>2018-12-28T04:40:45Z</time>
      </trkpt>
      <trkpt lat="36.661220" lon="-110.418980">
        <ele>1880.757</ele>
        <time>2018-12-28T04:41:05Z</time>
      </trkpt>
      <trkpt lat="36.661290" lon="-110.418910">
        <ele>1882.164</ele>
        <time>2018-12-28T04:41:25Z</time>
      </trkpt>
      <trkpt lat="36.661350" lon="-110.418850">
        <ele>1883.049</ele>
        <time>2018-12-28T04:41:45Z</time>
      </trkpt>
      <trkpt lat="36.661410" lon="-110.418780">
        <ele>1882.828</ele>
        <time>2018-12-28T04:42:05Z</time>
      </trkpt>
      <trkpt lat="36.661480" lon="-110.418690">
        <ele>1881.085</ele>
        <time>2018-12-28T04:42:25Z</time>
      </trkpt>
      <trkpt lat="36.661620" lon="-110.418510">
        <ele>1879.989</ele>
        <time>2018-12-28T04:42:45Z</time>
      </trkpt>
      <trkpt lat="36.661710" lon="-110.418400">
        <ele>1880.217</ele>
        <time>2018-12-28T04:43:05Z</time>
      </trkpt>
      <trkpt lat="36.661790" lon="-110.418280">
        <ele>1878.808</ele>
        <time>2018-12-28T04:43:25Z</time>
      </trkpt>
      <trkpt lat="36.661870" lon="-110.418160">
        <ele>1878.271</ele>
        <time>2018-12-28T04:43:45Z</time>
      </trkpt>
      <trkpt lat="36.661990" lon="-110.417980">
        <ele>1878.099</ele>
        <time>2018-12-28T04:44:05Z</time>
      </trkpt>
      <trkpt lat="36.662170" lon="-110.417690">
        <ele>1874.484</ele>
        <time>2018-12-28T04:44:25Z</time>
      </trkpt>
      <trkpt lat="36.662380" lon="-110.417350">
        <ele>1874.425</ele>
        <time>2018-12-28T04:44:45Z</time>
      </trkpt>
      <trkpt lat="36.662750" lon="-110.416730">
        <ele>1874.259</ele>
        <time>2018-12-28T04:45:05Z</time>
      </trkpt>
      <trkpt lat="36.663060" lon="-110.416230">
        <ele>1871.656</ele>
        <time>2018-12-28T04:45:25Z</time>
      </trkpt>
      <trkpt lat="36.663450" lon="-110.415570">
        <ele>1866.871</ele>
        <time>2018-12-28T04:45:45Z</time>
      </trkpt>
      <trkpt lat="36.663760" lon="-110.415030">
        <ele>1860.840</ele>
        <time>2018-12-28T04:46:05Z</time>
      </trkpt>
      <trkpt lat="36.664470" lon="-110.413880">
        <ele>1857.648</ele>
        <time>2018-12-28T04:46:25Z</time>
      </trkpt>
      <trkpt lat="36.664730" lon="-110.413480">
        <ele>1856.061</ele>
        <time>2018-12-28T04:46:45Z</time>
      </trkpt>
      <trkpt lat="36.665740" lon="-110.411790">
        <ele>1858.217</ele>
        <time>2018-12-28T04:47:05Z</time>
      </trkpt>
      <trkpt lat="36.666100" lon="-110.411180">
        <ele>1852.408</ele>
        <time>2018-12-28T04:47:25Z</time>
      </trkpt>
      <trkpt lat="36.666260" lon="-110.410920">
        <ele>1853.567</ele>
        <time>2018-12-28T04:47:45Z</time>
      </trkpt>
      <trkpt lat="36.666450" lon="-110.410590">
        <ele>1853.795</ele>
        <time>2018-12-28T04:48:05Z</time>
      </trkpt>
      <trkpt lat="36.666580" lon="-110.410360">
        <ele>1850.740</ele>
        <time>2018-12-28T04:48:25Z</time>
      </trkpt>
      <trkpt lat="36.666730" lon="-110.410100">
        <ele>1848.211</ele>
        <time>2018-12-28T04:48:45Z</time>
      </trkpt>
      <trkpt lat="36.667060" lon="-110.409540">
        <ele>1844.985</ele>
        <time>2018-12-28T04:49:05Z</time>
      </trkpt>
      <trkpt lat="36.667920" lon="-110.408110">
        <ele>1842.772</ele>
        <time>2018-12-28T04:49:25Z</time>
      </trkpt>
      <trkpt lat="36.669130" lon="-110.406120">
        <ele>1844.437</ele>
        <time>2018-12-28T04:49:45Z</time>
      </trkpt>
      <trkpt lat="36.670140" lon="-110.404420">
        <ele>1839.316</ele>
        <time>2018-12-28T04:50:05Z</time>
      </trkpt>
      <trkpt lat="36.670900" lon="-110.403150">
        <ele>1839.321</ele>
        <time>2018-12-28T04:50:25Z</time>
      </trkpt>
      <trkpt lat="36.671610" lon="-110.401980">
        <ele>1840.741</ele>
        <time>2018-12-28T04:50:45Z</time>
      </trkpt>
      <trkpt lat="36.672000" lon="-110.401310">
        <ele>1840.605</ele>
        <time>2018-12-28T04:51:05Z</time>
      </trkpt>
      <trkpt lat="36.672540" lon="-110.400410">
        <ele>1840.808</ele>
        <time>2018-12-28T04:51:25Z</time>
      </trkpt>
      <trkpt lat="36.673020" lon="-110.399600">
        <ele>1841.755</ele>
        <time>2018-12-28T04:51:45Z</time>
      </trkpt>
      <trkpt lat="36.673670" lon="-110.398540">
        <ele>1851.133</ele>
        <time>2018-12-28T04:52:05Z</time>
      </trkpt>
      <trkpt lat="36.674080" lon="-110.397860">
        <ele>1850.948</ele>
        <time>2018-12-28T04:52:25Z</time>
      </trkpt>
      <trkpt lat="36.674290" lon="-110.397500">
        <ele>1850.559</ele>
        <time>2018-12-28T04:52:45Z</time>
      </trkpt>
      <trkpt lat="36.674750" lon="-110.396720">
        <ele>1850.083</ele>
        <time>2018-12-28T04:53:05Z</time>
      </trkpt>
      <trkpt lat="36.675070" lon="-110.396200">
        <ele>1849.810</ele>
        <time>2018-12-28T04:53:25Z</time>
      </trkpt>
      <trkpt lat="36.676370" lon="-110.393970">
        <ele>1849.975</ele>
        <time>2018-12-28T04:53:45Z</time>
      </trkpt>
      <trkpt lat="36.676790" lon="-110.393250">
        <ele>1850.014</ele>
        <time>2018-12-28T04:54:05Z</time>
      </trkpt>
      <trkpt lat="36.677550" lon="-110.391970">
        <ele>1848.935</ele>
        <time>2018-12-28T04:54:25Z</time>
      </trkpt>
      <trkpt lat="36.678590" lon="-110.390150">
        <ele>1845.286</ele>
        <time>2018-12-28T04:54:45Z</time>
      </trkpt>
      <trkpt lat="36.679130" lon="-110.389160">
        <ele>1842.014</ele>
        <time>2018-12-28T04:55:05Z</time>
      </trkpt>
      <trkpt lat="36.679730" lon="-110.388090">
        <ele>1841.908</ele>
        <time>2018-12-28T04:55:25Z</time>
      </trkpt>
      <trkpt lat="36.680250" lon="-110.387190">
        <ele>1839.116</ele>
        <time>2018-12-28T04:55:45Z</time>
      </trkpt>
      <trkpt lat="36.681280" lon="-110.385360">
        <ele>1832.814</ele>
        <time>2018-12-28T04:56:05Z</time>
      </trkpt>
      <trkpt lat="36.681720" lon="-110.384570">
        <ele>1832.269</ele>
        <time>2018-12-28T04:56:25Z</time>
      </trkpt>
      <trkpt lat="36.682030" lon="-110.384020">
        <ele>1832.580</ele>
        <time>2018-12-28T04:56:45Z</time>
      </trkpt>
      <trkpt lat="36.682600" lon="-110.383000">
        <ele>1832.684</ele>
        <time>2018-12-28T04:57:05Z</time>
      </trkpt>
      <trkpt lat="36.683100" lon="-110.382110">
        <ele>1840.371</ele>
        <time>2018-12-28T04:57:25Z</time>
      </trkpt>
      <trkpt lat="36.683600" lon="-110.381200">
        <ele>1842.526</ele>
        <time>2018-12-28T04:57:45Z</time>
      </trkpt>
      <trkpt lat="36.684100" lon="-110.380320">
        <ele>1846.295</ele>
        <time>2018-12-28T04:58:05Z</time>
      </trkpt>
      <trkpt lat="36.684760" lon="-110.379140">
        <ele>1836.894</ele>
        <time>2018-12-28T04:58:25Z</time>
      </trkpt>
      <trkpt lat="36.685060" lon="-110.378610">
        <ele>1834.657</ele>
        <time>2018-12-28T04:58:45Z</time>
      </trkpt>
      <trkpt lat="36.685650" lon="-110.377560">
        <ele>1834.122</ele>
        <time>2018-12-28T04:59:05Z</time>
      </trkpt>
      <trkpt lat="36.685980" lon="-110.376960">
        <ele>1833.408</ele>
        <time>2018-12-28T04:59:25Z</time>
      </trkpt>
      <trkpt lat="36.686260" lon="-110.376460">
        <ele>1832.572</ele>
        <time>2018-12-28T04:59:45Z</time>
      </trkpt>
      <trkpt lat="36.686490" lon="-110.376050">
        <ele>1832.380</ele>
        <time>2018-12-28T05:00:05Z</time>
      </trkpt>
      <trkpt lat="36.686810" lon="-110.375480">
        <ele>1834.275</ele>
        <time>2018-12-28T05:00:25Z</time>
      </trkpt>
      <trkpt lat="36.687060" lon="-110.375030">
        <ele>1834.826</ele>
        <time>2018-12-28T05:00:45Z</time>
      </trkpt>
      <trkpt lat="36.687240" lon="-110.374710">
        <ele>1834.110</ele>
        <time>2018-12-28T05:01:05Z</time>
      </trkpt>
      <trkpt lat="36.687540" lon="-110.374170">
        <ele>1831.337</ele>
        <time>2018-12-28T05:01:25Z</time>
      </trkpt>
      <trkpt lat="36.688200" lon="-110.372990">
        <ele>1829.442</ele>
        <time>2018-12-28T05:01:45Z</time>
      </trkpt>
      <trkpt lat="36.688560" lon="-110.372350">
        <ele>1827.961</ele>
        <time>2018-12-28T05:02:05Z</time>
      </trkpt>
      <trkpt lat="36.688690" lon="-110.372110">
        <ele>1827.667</ele>
        <time>2018-12-28T05:02:25Z</time>
      </trkpt>
      <trkpt lat="36.689210" lon="-110.371200">
        <ele>1826.881</ele>
        <time>2018-12-28T05:02:45Z</time>
      </trkpt>
      <trkpt lat="36.689570" lon="-110.370540">
        <ele>1826.119</ele>
        <time>2018-12-28T05:03:05Z</time>
      </trkpt>
      <trkpt lat="36.690260" lon="-110.369320">
        <ele>1826.708</ele>
        <time>2018-12-28T05:03:25Z</time>
      </trkpt>
      <trkpt lat="36.690950" lon="-110.368080">
        <ele>1828.429</ele>
        <time>2018-12-28T05:03:45Z</time>
      </trkpt>
      <trkpt lat="36.691330" lon="-110.367410">
        <ele>1829.247</ele>
        <time>2018-12-28T05:04:05Z</time>
      </trkpt>
      <trkpt lat="36.691650" lon="-110.366820">
        <ele>1829.822</ele>
        <time>2018-12-28T05:04:25Z</time>
      </trkpt>
      <trkpt lat="36.691980" lon="-110.366240">
        <ele>1835.163</ele>
        <time>2018-12-28T05:04:45Z</time>
      </trkpt>
      <trkpt lat="36.692300" lon="-110.365660">
        <ele>1837.527</ele>
        <time>2018-12-28T05:05:05Z</time>
      </trkpt>
      <trkpt lat="36.692580" lon="-110.365150">
        <ele>1837.334</ele>
        <time>2018-12-28T05:05:25Z</time>
      </trkpt>
      <trkpt lat="36.692690" lon="-110.364930">
        <ele>1836.919</ele>
        <time>2018-12-28T05:05:45Z</time>
      </trkpt>
      <trkpt lat="36.692800" lon="-110.364710">
        <ele>1836.348</ele>
        <time>2018-12-28T05:06:05Z</time>
      </trkpt>
      <trkpt lat="36.692890" lon="-110.364520">
        <ele>1835.837</ele>
        <time>2018-12-28T05:06:25Z</time>
      </trkpt>
      <trkpt lat="36.692970" lon="-110.364340">
        <ele>1835.349</ele>
        <time>2018-12-28T05:06:45Z</time>
      </trkpt>
      <trkpt lat="36.693130" lon="-110.363960">
        <ele>1834.013</ele>
        <time>2018-12-28T05:07:05Z</time>
      </trkpt>
      <trkpt lat="36.693250" lon="-110.363640">
        <ele>1832.408</ele>
        <time>2018-12-28T05:07:25Z</time>
      </trkpt>
      <trkpt lat="36.693350" lon="-110.363360">
        <ele>1830.876</ele>
        <time>2018-12-28T05:07:45Z</time>
      </trkpt>
      <trkpt lat="36.693460" lon="-110.363020">
        <ele>1829.524</ele>
        <time>2018-12-28T05:08:05Z</time>
      </trkpt>
      <trkpt lat="36.693550" lon="-110.362740">
        <ele>1829.279</ele>
        <time>2018-12-28T05:08:25Z</time>
      </trkpt>
      <trkpt lat="36.693640" lon="-110.362450">
        <ele>1828.890</ele>
        <time>2018-12-28T05:08:45Z</time>
      </trkpt>
      <trkpt lat="36.693720" lon="-110.362160">
        <ele>1828.284</ele>
        <time>2018-12-28T05:09:05Z</time>
      </trkpt>
      <trkpt lat="36.693800" lon="-110.361800">
        <ele>1826.621</ele>
        <time>2018-12-28T05:09:25Z</time>
      </trkpt>
      <trkpt lat="36.693880" lon="-110.361470">
        <ele>1824.816</ele>
        <time>2018-12-28T05:09:45Z</time>
      </trkpt>
      <trkpt lat="36.694030" lon="-110.360670">
        <ele>1820.345</ele>
        <time>2018-12-28T05:10:05Z</time>
      </trkpt>
      <trkpt lat="36.694230" lon="-110.359570">
        <ele>1819.984</ele>
        <time>2018-12-28T05:10:25Z</time>
      </trkpt>
      <trkpt lat="36.694520" lon="-110.357940">
        <ele>1817.207</ele>
        <time>2018-12-28T05:10:45Z</time>
      </trkpt>
      <trkpt lat="36.694730" lon="-110.356760">
        <ele>1816.317</ele>
        <time>2018-12-28T05:11:05Z</time>
      </trkpt>
      <trkpt lat="36.694910" lon="-110.355770">
        <ele>1815.808</ele>
        <time>2018-12-28T05:11:25Z</time>
      </trkpt>
      <trkpt lat="36.695180" lon="-110.354270">
        <ele>1816.751</ele>
        <time>2018-12-28T05:11:45Z</time>
      </trkpt>
      <trkpt lat="36.695400" lon="-110.353010">
        <ele>1816.539</ele>
        <time>2018-12-28T05:12:05Z</time>
      </trkpt>
      <trkpt lat="36.695640" lon="-110.351680">
        <ele>1816.614</ele>
        <time>2018-12-28T05:12:25Z</time>
      </trkpt>
      <trkpt lat="36.695820" lon="-110.350690">
        <ele>1817.775</ele>
        <time>2018-12-28T05:12:45Z</time>
      </trkpt>
      <trkpt lat="36.695950" lon="-110.349990">
        <ele>1816.669</ele>
        <time>2018-12-28T05:13:05Z</time>
      </trkpt>
      <trkpt lat="36.696300" lon="-110.348000">
        <ele>1813.216</ele>
        <time>2018-12-28T05:13:25Z</time>
      </trkpt>
      <trkpt lat="36.696490" lon="-110.346960">
        <ele>1812.941</ele>
        <time>2018-12-28T05:13:45Z</time>
      </trkpt>
      <trkpt lat="36.696570" lon="-110.346540">
        <ele>1813.090</ele>
        <time>2018-12-28T05:14:05Z</time>
      </trkpt>
      <trkpt lat="36.696630" lon="-110.346180">
        <ele>1813.296</ele>
        <time>2018-12-28T05:14:25Z</time>
      </trkpt>
      <trkpt lat="36.696780" lon="-110.345370">
        <ele>1813.931</ele>
        <time>2018-12-28T05:14:45Z</time>
      </trkpt>
      <trkpt lat="36.697050" lon="-110.343850">
        <ele>1815.724</ele>
        <time>2018-12-28T05:15:05Z</time>
      </trkpt>
      <trkpt lat="36.697310" lon="-110.342410">
        <ele>1817.608</ele>
        <time>2018-12-28T05:15:25Z</time>
      </trkpt>
      <trkpt lat="36.697470" lon="-110.341490">
        <ele>1817.242</ele>
        <time>2018-12-28T05:15:45Z</time>
      </trkpt>
      <trkpt lat="36.697690" lon="-110.340290">
        <ele>1814.590</ele>
        <time>2018-12-28T05:16:05Z</time>
      </trkpt>
      <trkpt lat="36.697980" lon="-110.338630">
        <ele>1812.755</ele>
        <time>2018-12-28T05:16:25Z</time>
      </trkpt>
      <trkpt lat="36.698090" lon="-110.338030">
        <ele>1812.116</ele>
        <time>2018-12-28T05:16:45Z</time>
      </trkpt>
      <trkpt lat="36.698180" lon="-110.337540">
        <ele>1811.650</ele>
        <time>2018-12-28T05:17:05Z</time>
      </trkpt>
      <trkpt lat="36.698230" lon="-110.337260">
        <ele>1811.567</ele>
        <time>2018-12-28T05:17:25Z</time>
      </trkpt>
      <trkpt lat="36.698280" lon="-110.336980">
        <ele>1811.372</ele>
        <time>2018-12-28T05:17:45Z</time>
      </trkpt>
      <trkpt lat="36.698330" lon="-110.336680">
        <ele>1811.241</ele>
        <time>2018-12-28T05:18:05Z</time>
      </trkpt>
      <trkpt lat="36.698370" lon="-110.336370">
        <ele>1811.326</ele>
        <time>2018-12-28T05:18:25Z</time>
      </trkpt>
      <trkpt lat="36.698400" lon="-110.336160">
        <ele>1811.447</ele>
        <time>2018-12-28T05:18:45Z</time>
      </trkpt>
      <trkpt lat="36.698420" lon="-110.335970">
        <ele>1811.611</ele>
        <time>2018-12-28T05:19:05Z</time>
      </trkpt>
      <trkpt lat="36.698440" lon="-110.335790">
        <ele>1811.808</ele>
        <time>2018-12-28T05:19:25Z</time>
      </trkpt>
      <trkpt lat="36.698450" lon="-110.335620">
        <ele>1812.085</ele>
        <time>2018-12-28T05:19:45Z</time>
      </trkpt>
      <trkpt lat="36.698460" lon="-110.335490">
        <ele>1812.213</ele>
        <time>2018-12-28T05:20:05Z</time>
      </trkpt>
      <trkpt lat="36.698480" lon="-110.335210">
        <ele>1812.678</ele>
        <time>2018-12-28T05:20:25Z</time>
      </trkpt>
      <trkpt lat="36.698500" lon="-110.334880">
        <ele>1813.229</ele>
        <time>2018-12-28T05:20:45Z</time>
      </trkpt>
      <trkpt lat="36.698510" lon="-110.334560">
        <ele>1814.043</ele>
        <time>2018-12-28T05:21:05Z</time>
      </trkpt>
      <trkpt lat="36.698530" lon="-110.333960">
        <ele>1814.650</ele>
        <time>2018-12-28T05:21:25Z</time>
      </trkpt>
      <trkpt lat="36.698580" lon="-110.332700">
        <ele>1813.685</ele>
        <time>2018-12-28T05:21:45Z</time>
      </trkpt>
      <trkpt lat="36.698610" lon="-110.331340">
        <ele>1813.024</ele>
        <time>2018-12-28T05:22:05Z</time>
      </trkpt>
      <trkpt lat="36.698630" lon="-110.330870">
        <ele>1812.946</ele>
        <time>2018-12-28T05:22:25Z</time>
      </trkpt>
      <trkpt lat="36.698650" lon="-110.329920">
        <ele>1813.788</ele>
        <time>2018-12-28T05:22:45Z</time>
      </trkpt>
      <trkpt lat="36.698690" lon="-110.328690">
        <ele>1816.116</ele>
        <time>2018-12-28T05:23:05Z</time>
      </trkpt>
      <trkpt lat="36.698740" lon="-110.326880">
        <ele>1815.708</ele>
        <time>2018-12-28T05:23:25Z</time>
      </trkpt>
      <trkpt lat="36.698810" lon="-110.324470">
        <ele>1814.177</ele>
        <time>2018-12-28T05:23:45Z</time>
      </trkpt>
      <trkpt lat="36.698870" lon="-110.322210">
        <ele>1821.155</ele>
        <time>2018-12-28T05:24:05Z</time>
      </trkpt>
      <trkpt lat="36.698920" lon="-110.320680">
        <ele>1827.170</ele>
        <time>2018-12-28T05:24:25Z</time>
      </trkpt>
      <trkpt lat="36.698980" lon="-110.318610">
        <ele>1819.291</ele>
        <time>2018-12-28T05:24:45Z</time>
      </trkpt>
      <trkpt lat="36.699230" lon="-110.310220">
        <ele>1805.185</ele>
        <time>2018-12-28T05:25:05Z</time>
      </trkpt>
      <trkpt lat="36.699250" lon="-110.309410">
        <ele>1803.452</ele>
        <time>2018-12-28T05:25:25Z</time>
      </trkpt>
      <trkpt lat="36.699350" lon="-110.305830">
        <ele>1793.557</ele>
        <time>2018-12-28T05:25:45Z</time>
      </trkpt>
      <trkpt lat="36.699410" lon="-110.303250">
        <ele>1808.866</ele>
        <time>2018-12-28T05:26:05Z</time>
      </trkpt>
      <trkpt lat="36.699430" lon="-110.302770">
        <ele>1809.839</ele>
        <time>2018-12-28T05:26:25Z</time>
      </trkpt>
      <trkpt lat="36.699440" lon="-110.302400">
        <ele>1810.301</ele>
        <time>2018-12-28T05:26:45Z</time>
      </trkpt>
      <trkpt lat="36.699460" lon="-110.301920">
        <ele>1810.721</ele>
        <time>2018-12-28T05:27:05Z</time>
      </trkpt>
      <trkpt lat="36.699470" lon="-110.301750">
        <ele>1810.708</ele>
        <time>2018-12-28T05:27:25Z</time>
      </trkpt>
      <trkpt lat="36.699480" lon="-110.301620">
        <ele>1810.786</ele>
        <time>2018-12-28T05:27:45Z</time>
      </trkpt>
      <trkpt lat="36.699490" lon="-110.301480">
        <ele>1810.784</ele>
        <time>2018-12-28T05:28:05Z</time>
      </trkpt>
      <trkpt lat="36.699510" lon="-110.301300">
        <ele>1810.659</ele>
        <time>2018-12-28T05:28:25Z</time>
      </trkpt>
      <trkpt lat="36.699520" lon="-110.301190">
        <ele>1810.680</ele>
        <time>2018-12-28T05:28:45Z</time>
      </trkpt>
      <trkpt lat="36.699530" lon="-110.301090">
        <ele>1810.534</ele>
        <time>2018-12-28T05:29:05Z</time>
      </trkpt>
      <trkpt lat="36.699560" lon="-110.300800">
        <ele>1810.231</ele>
        <time>2018-12-28T05:29:25Z</time>
      </trkpt>
      <trkpt lat="36.699690" lon="-110.299880">
        <ele>1809.466</ele>
        <time>2018-12-28T05:29:45Z</time>
      </trkpt>
      <trkpt lat="36.700040" lon="-110.297610">
        <ele>1808.015</ele>
        <time>2018-12-28T05:30:05Z</time>
      </trkpt>
      <trkpt lat="36.700190" lon="-110.296710">
        <ele>1807.267</ele>
        <time>2018-12-28T05:30:25Z</time>
      </trkpt>
      <trkpt lat="36.700320" lon="-110.295810">
        <ele>1806.681</ele>
        <time>2018-12-28T05:30:45Z</time>
      </trkpt>
      <trkpt lat="36.700610" lon="-110.293920">
        <ele>1804.519</ele>
        <time>2018-12-28T05:31:05Z</time>
      </trkpt>
      <trkpt lat="36.700720" lon="-110.293220">
        <ele>1801.308</ele>
        <time>2018-12-28T05:31:25Z</time>
      </trkpt>
      <trkpt lat="36.703480" lon="-110.275270">
        <ele>1770.519</ele>
        <time>2018-12-28T05:31:45Z</time>
      </trkpt>
      <trkpt lat="36.704220" lon="-110.270460">
        <ele>1764.567</ele>
        <time>2018-12-28T05:32:05Z</time>
      </trkpt>
      <trkpt lat="36.704470" lon="-110.268860">
        <ele>1763.252</ele>
        <time>2018-12-28T05:32:25Z</time>
      </trkpt>
      <trkpt lat="36.704740" lon="-110.267140">
        <ele>1762.463</ele>
        <time>2018-12-28T05:32:45Z</time>
      </trkpt>
      <trkpt lat="36.705050" lon="-110.265090">
        <ele>1761.957</ele>
        <time>2018-12-28T05:33:05Z</time>
      </trkpt>
      <trkpt lat="36.705490" lon="-110.262180">
        <ele>1759.814</ele>
        <time>2018-12-28T05:33:25Z</time>
      </trkpt>
      <trkpt lat="36.705930" lon="-110.259330">
        <ele>1756.819</ele>
        <time>2018-12-28T05:33:45Z</time>
      </trkpt>
      <trkpt lat="36.706220" lon="-110.257300">
        <ele>1756.518</ele>
        <time>2018-12-28T05:34:05Z</time>
      </trkpt>
      <trkpt lat="36.706410" lon="-110.256020">
        <ele>1754.494</ele>
        <time>2018-12-28T05:34:25Z</time>
      </trkpt>
      <trkpt lat="36.706480" lon="-110.255480">
        <ele>1753.857</ele>
        <time>2018-12-28T05:34:45Z</time>
      </trkpt>
      <trkpt lat="36.706740" lon="-110.253600">
        <ele>1751.122</ele>
        <time>2018-12-28T05:35:05Z</time>
      </trkpt>
      <trkpt lat="36.706890" lon="-110.252550">
        <ele>1749.208</ele>
        <time>2018-12-28T05:35:25Z</time>
      </trkpt>
      <trkpt lat="36.706970" lon="-110.252070">
        <ele>1748.122</ele>
        <time>2018-12-28T05:35:45Z</time>
      </trkpt>
      <trkpt lat="36.707110" lon="-110.251160">
        <ele>1746.280</ele>
        <time>2018-12-28T05:36:05Z</time>
      </trkpt>
      <trkpt lat="36.707210" lon="-110.250540">
        <ele>1745.435</ele>
        <time>2018-12-28T05:36:25Z</time>
      </trkpt>
      <trkpt lat="36.707320" lon="-110.249850">
        <ele>1744.996</ele>
        <time>2018-12-28T05:36:45Z</time>
      </trkpt>
      <trkpt lat="36.707380" lon="-110.249440">
        <ele>1744.880</ele>
        <time>2018-12-28T05:37:05Z</time>
      </trkpt>
      <trkpt lat="36.707450" lon="-110.248960">
        <ele>1744.627</ele>
        <time>2018-12-28T05:37:25Z</time>
      </trkpt>
      <trkpt lat="36.707500" lon="-110.248640">
        <ele>1744.642</ele>
        <time>2018-12-28T05:37:45Z</time>
      </trkpt>
      <trkpt lat="36.707540" lon="-110.248380">
        <ele>1744.661</ele>
        <time>2018-12-28T05:38:05Z</time>
      </trkpt>
      <trkpt lat="36.707620" lon="-110.247870">
        <ele>1744.732</ele>
        <time>2018-12-28T05:38:25Z</time>
      </trkpt>
      <trkpt lat="36.707720" lon="-110.247230">
        <ele>1743.892</ele>
        <time>2018-12-28T05:38:45Z</time>
      </trkpt>
      <trkpt lat="36.707718" lon="-110.247226">
        <ele>1743.811</ele>
        <time>2018-12-28T05:39:05Z</time>
      </trkpt>
      <trkpt lat="36.708180" lon="-110.247530">
        <ele>1743.108</ele>
        <time>2018-12-28T05:39:25Z</time>
      </trkpt>
      <trkpt lat="36.708390" lon="-110.247660">
        <ele>1742.376</ele>
        <time>2018-12-28T05:39:45Z</time>
      </trkpt>
      <trkpt lat="36.708700" lon="-110.247850">
        <ele>1740.934</ele>
        <time>2018-12-28T05:40:05Z</time>
      </trkpt>
      <trkpt lat="36.708970" lon="-110.248020">
        <ele>1740.159</ele>
        <time>2018-12-28T05:40:25Z</time>
      </trkpt>
      <trkpt lat="36.709140" lon="-110.248130">
        <ele>1740.080</ele>
        <time>2018-12-28T05:40:45Z</time>
      </trkpt>
      <trkpt lat="36.709390" lon="-110.248300">
        <ele>1740.124</ele>
        <time>2018-12-28T05:41:05Z</time>
      </trkpt>
      <trkpt lat="36.709690" lon="-110.248480">
        <ele>1740.291</ele>
        <time>2018-12-28T05:41:25Z</time>
      </trkpt>
      <trkpt lat="36.710340" lon="-110.248880">
        <ele>1740.116</ele>
        <time>2018-12-28T05:41:45Z</time>
      </trkpt>
      <trkpt lat="36.711050" lon="-110.249330">
        <ele>1739.695</ele>
        <time>2018-12-28T05:42:05Z</time>
      </trkpt>
      <trkpt lat="36.712080" lon="-110.250000">
        <ele>1739.545</ele>
        <time>2018-12-28T05:42:25Z</time>
      </trkpt>
      <trkpt lat="36.712260" lon="-110.250120">
        <ele>1739.547</ele>
        <time>2018-12-28T05:42:45Z</time>
      </trkpt>
      <trkpt lat="36.712700" lon="-110.250390">
        <ele>1739.211</ele>
        <time>2018-12-28T05:43:05Z</time>
      </trkpt>
      <trkpt lat="36.713140" lon="-110.250680">
        <ele>1738.908</ele>
        <time>2018-12-28T05:43:25Z</time>
      </trkpt>
      <trkpt lat="36.713640" lon="-110.250980">
        <ele>1738.057</ele>
        <time>2018-12-28T05:43:45Z</time>
      </trkpt>
      <trkpt lat="36.715050" lon="-110.251880">
        <ele>1736.415</ele>
        <time>2018-12-28T05:44:05Z</time>
      </trkpt>
      <trkpt lat="36.715300" lon="-110.252040">
        <ele>1736.140</ele>
        <time>2018-12-28T05:44:25Z</time>
      </trkpt>
      <trkpt lat="36.716730" lon="-110.252920">
        <ele>1734.291</ele>
        <time>2018-12-28T05:44:45Z</time>
      </trkpt>
      <trkpt lat="36.716980" lon="-110.253090">
        <ele>1733.925</ele>
        <time>2018-12-28T05:45:05Z</time>
      </trkpt>
      <trkpt lat="36.717460" lon="-110.253420">
        <ele>1733.532</ele>
        <time>2018-12-28T05:45:25Z</time>
      </trkpt>
      <trkpt lat="36.718100" lon="-110.253830">
        <ele>1732.967</ele>
        <time>2018-12-28T05:45:45Z</time>
      </trkpt>
      <trkpt lat="36.718930" lon="-110.254360">
        <ele>1732.716</ele>
        <time>2018-12-28T05:46:05Z</time>
      </trkpt>
      <trkpt lat="36.720030" lon="-110.255050">
        <ele>1732.385</ele>
        <time>2018-12-28T05:46:25Z</time>
      </trkpt>
      <trkpt lat="36.720990" lon="-110.255670">
        <ele>1732.289</ele>
        <time>2018-12-28T05:46:45Z</time>
      </trkpt>
      <trkpt lat="36.721160" lon="-110.255770">
        <ele>1731.917</ele>
        <time>2018-12-28T05:47:05Z</time>
      </trkpt>
      <trkpt lat="36.721620" lon="-110.256080">
        <ele>1731.108</ele>
        <time>2018-12-28T05:47:25Z</time>
      </trkpt>
      <trkpt lat="36.722240" lon="-110.256450">
        <ele>1731.041</ele>
        <time>2018-12-28T05:47:45Z</time>
      </trkpt>
      <trkpt lat="36.722450" lon="-110.256550">
        <ele>1731.319</ele>
        <time>2018-12-28T05:48:05Z</time>
      </trkpt>
      <trkpt lat="36.722590" lon="-110.256600">
        <ele>1731.414</ele>
        <time>2018-12-28T05:48:25Z</time>
      </trkpt>
      <trkpt lat="36.722700" lon="-110.256640">
        <ele>1731.655</ele>
        <time>2018-12-28T05:48:45Z</time>
      </trkpt>
      <trkpt lat="36.722830" lon="-110.256670">
        <ele>1731.829</ele>
        <time>2018-12-28T05:49:05Z</time>
      </trkpt>
      <trkpt lat="36.723010" lon="-110.256700">
        <ele>1732.296</ele>
        <time>2018-12-28T05:49:25Z</time>
      </trkpt>
      <trkpt lat="36.723210" lon="-110.256710">
        <ele>1732.611</ele>
        <time>2018-12-28T05:49:45Z</time>
      </trkpt>
      <trkpt lat="36.723330" lon="-110.256710">
        <ele>1732.690</ele>
        <time>2018-12-28T05:50:05Z</time>
      </trkpt>
      <trkpt lat="36.723400" lon="-110.256710">
        <ele>1732.623</ele>
        <time>2018-12-28T05:50:25Z</time>
      </trkpt>
      <trkpt lat="36.723560" lon="-110.256700">
        <ele>1732.583</ele>
        <time>2018-12-28T05:50:45Z</time>
      </trkpt>
      <trkpt lat="36.723720" lon="-110.256680">
        <ele>1732.511</ele>
        <time>2018-12-28T05:51:05Z</time>
      </trkpt>
      <trkpt lat="36.723870" lon="-110.256650">
        <ele>1732.508</ele>
        <time>2018-12-28T05:51:25Z</time>
      </trkpt>
      <trkpt lat="36.724010" lon="-110.256610">
        <ele>1732.585</ele>
        <time>2018-12-28T05:51:45Z</time>
      </trkpt>
      <trkpt lat="36.724150" lon="-110.256560">
        <ele>1732.593</ele>
        <time>2018-12-28T05:52:05Z</time>
      </trkpt>
      <trkpt lat="36.724290" lon="-110.256500">
        <ele>1732.588</ele>
        <time>2018-12-28T05:52:25Z</time>
      </trkpt>
      <trkpt lat="36.724560" lon="-110.256370">
        <ele>1732.569</ele>
        <time>2018-12-28T05:52:45Z</time>
      </trkpt>
      <trkpt lat="36.724680" lon="-110.256280">
        <ele>1732.533</ele>
        <time>2018-12-28T05:53:05Z</time>
      </trkpt>
      <trkpt lat="36.724860" lon="-110.256140">
        <ele>1732.550</ele>
        <time>2018-12-28T05:53:25Z</time>
      </trkpt>
      <trkpt lat="36.724990" lon="-110.256040">
        <ele>1732.525</ele>
        <time>2018-12-28T05:53:45Z</time>
      </trkpt>
      <trkpt lat="36.725170" lon="-110.255860">
        <ele>1732.554</ele>
        <time>2018-12-28T05:54:05Z</time>
      </trkpt>
      <trkpt lat="36.725290" lon="-110.255740">
        <ele>1732.596</ele>
        <time>2018-12-28T05:54:25Z</time>
      </trkpt>
      <trkpt lat="36.725410" lon="-110.255600">
        <ele>1732.631</ele>
        <time>2018-12-28T05:54:45Z</time>
      </trkpt>
      <trkpt lat="36.725570" lon="-110.255370">
        <ele>1732.524</ele>
        <time>2018-12-28T05:55:05Z</time>
      </trkpt>
      <trkpt lat="36.725650" lon="-110.255220">
        <ele>1732.508</ele>
        <time>2018-12-28T05:55:25Z</time>
      </trkpt>
      <trkpt lat="36.725710" lon="-110.255120">
        <ele>1732.432</ele>
        <time>2018-12-28T05:55:45Z</time>
      </trkpt>
      <trkpt lat="36.725810" lon="-110.254900">
        <ele>1732.190</ele>
        <time>2018-12-28T05:56:05Z</time>
      </trkpt>
      <trkpt lat="36.725880" lon="-110.254750">
        <ele>1731.695</ele>
        <time>2018-12-28T05:56:25Z</time>
      </trkpt>
      <trkpt lat="36.725920" lon="-110.254630">
        <ele>1731.186</ele>
        <time>2018-12-28T05:56:45Z</time>
      </trkpt>
      <trkpt lat="36.725960" lon="-110.254520">
        <ele>1730.630</ele>
        <time>2018-12-28T05:57:05Z</time>
      </trkpt>
      <trkpt lat="36.725990" lon="-110.254440">
        <ele>1730.247</ele>
        <time>2018-12-28T05:57:25Z</time>
      </trkpt>
      <trkpt lat="36.726270" lon="-110.253580">
        <ele>1726.962</ele>
        <time>2018-12-28T05:57:45Z</time>
      </trkpt>
      <trkpt lat="36.726490" lon="-110.252950">
        <ele>1725.781</ele>
        <time>2018-12-28T05:58:05Z</time>
      </trkpt>
      <trkpt lat="36.726960" lon="-110.251620">
        <ele>1720.839</ele>
        <time>2018-12-28T05:58:25Z</time>
      </trkpt>
      <trkpt lat="36.727000" lon="-110.251490">
        <ele>1720.301</ele>
        <time>2018-12-28T05:58:45Z</time>
      </trkpt>
      <trkpt lat="36.727050" lon="-110.251360">
        <ele>1720.121</ele>
        <time>2018-12-28T05:59:05Z</time>
      </trkpt>
      <trkpt lat="36.727090" lon="-110.251250">
        <ele>1720.008</ele>
        <time>2018-12-28T05:59:25Z</time>
      </trkpt>
      <trkpt lat="36.727490" lon="-110.250100">
        <ele>1718.046</ele>
        <time>2018-12-28T05:59:45Z</time>
      </trkpt>
      <trkpt lat="36.727540" lon="-110.249950">
        <ele>1717.754</ele>
        <time>2018-12-28T06:00:05Z</time>
      </trkpt>
      <trkpt lat="36.727710" lon="-110.249440">
        <ele>1716.779</ele>
        <time>2018-12-28T06:00:25Z</time>
      </trkpt>
      <trkpt lat="36.727920" lon="-110.248850">
        <ele>1715.840</ele>
        <time>2018-12-28T06:00:45Z</time>
      </trkpt>
      <trkpt lat="36.728270" lon="-110.247820">
        <ele>1715.224</ele>
        <time>2018-12-28T06:01:05Z</time>
      </trkpt>
      <trkpt lat="36.728380" lon="-110.247520">
        <ele>1715.051</ele>
        <time>2018-12-28T06:01:25Z</time>
      </trkpt>
      <trkpt lat="36.728450" lon="-110.247350">
        <ele>1714.866</ele>
        <time>2018-12-28T06:01:45Z</time>
      </trkpt>
      <trkpt lat="36.728540" lon="-110.247100">
        <ele>1714.675</ele>
        <time>2018-12-28T06:02:05Z</time>
      </trkpt>
      <trkpt lat="36.728630" lon="-110.246910">
        <ele>1714.573</ele>
        <time>2018-12-28T06:02:25Z</time>
      </trkpt>
      <trkpt lat="36.728830" lon="-110.246500">
        <ele>1714.385</ele>
        <time>2018-12-28T06:02:45Z</time>
      </trkpt>
      <trkpt lat="36.729120" lon="-110.245990">
        <ele>1714.013</ele>
        <time>2018-12-28T06:03:05Z</time>
      </trkpt>
      <trkpt lat="36.729340" lon="-110.245610">
        <ele>1713.908</ele>
        <time>2018-12-28T06:03:25Z</time>
      </trkpt>
      <trkpt lat="36.729680" lon="-110.245120">
        <ele>1713.810</ele>
        <time>2018-12-28T06:03:45Z</time>
      </trkpt>
      <trkpt lat="36.729960" lon="-110.244770">
        <ele>1713.658</ele>
        <time>2018-12-28T06:04:05Z</time>
      </trkpt>
      <trkpt lat="36.730070" lon="-110.244630">
        <ele>1713.273</ele>
        <time>2018-12-28T06:04:25Z</time>
      </trkpt>
      <trkpt lat="36.730170" lon="-110.244520">
        <ele>1712.954</ele>
        <time>2018-12-28T06:04:45Z</time>
      </trkpt>
      <trkpt lat="36.730440" lon="-110.244230">
        <ele>1711.818</ele>
        <time>2018-12-28T06:05:05Z</time>
      </trkpt>
      <trkpt lat="36.730800" lon="-110.243900">
        <ele>1710.965</ele>
        <time>2018-12-28T06:05:25Z</time>
      </trkpt>
      <trkpt lat="36.730920" lon="-110.243780">
        <ele>1710.860</ele>
        <time>2018-12-28T06:05:45Z</time>
      </trkpt>
      <trkpt lat="36.731100" lon="-110.243600">
        <ele>1710.389</ele>
        <time>2018-12-28T06:06:05Z</time>
      </trkpt>
      <trkpt lat="36.731630" lon="-110.243110">
        <ele>1710.796</ele>
        <time>2018-12-28T06:06:25Z</time>
      </trkpt>
      <trkpt lat="36.731710" lon="-110.243050">
        <ele>1711.031</ele>
        <time>2018-12-28T06:06:45Z</time>
      </trkpt>
      <trkpt lat="36.732770" lon="-110.242090">
        <ele>1711.224</ele>
        <time>2018-12-28T06:07:05Z</time>
      </trkpt>
      <trkpt lat="36.733660" lon="-110.241320">
        <ele>1708.908</ele>
        <time>2018-12-28T06:07:25Z</time>
      </trkpt>
      <trkpt lat="36.734280" lon="-110.240780">
        <ele>1707.182</ele>
        <time>2018-12-28T06:07:45Z</time>
      </trkpt>
      <trkpt lat="36.734630" lon="-110.240450">
        <ele>1706.520</ele>
        <time>2018-12-28T06:08:05Z</time>
      </trkpt>
      <trkpt lat="36.735070" lon="-110.240060">
        <ele>1705.125</ele>
        <time>2018-12-28T06:08:25Z</time>
      </trkpt>
      <trkpt lat="36.735410" lon="-110.239770">
        <ele>1703.926</ele>
        <time>2018-12-28T06:08:45Z</time>
      </trkpt>
      <trkpt lat="36.736170" lon="-110.239070">
        <ele>1701.580</ele>
        <time>2018-12-28T06:09:05Z</time>
      </trkpt>
      <trkpt lat="36.736570" lon="-110.238690">
        <ele>1700.857</ele>
        <time>2018-12-28T06:09:25Z</time>
      </trkpt>
      <trkpt lat="36.737120" lon="-110.238200">
        <ele>1691.052</ele>
        <time>2018-12-28T06:09:45Z</time>
      </trkpt>
      <trkpt lat="36.737230" lon="-110.238100">
        <ele>1684.531</ele>
        <time>2018-12-28T06:10:05Z</time>
      </trkpt>
      <trkpt lat="36.737490" lon="-110.237860">
        <ele>1678.814</ele>
        <time>2018-12-28T06:10:25Z</time>
      </trkpt>
      <trkpt lat="36.737730" lon="-110.237630">
        <ele>1686.754</ele>
        <time>2018-12-28T06:10:45Z</time>
      </trkpt>
      <trkpt lat="36.738210" lon="-110.237200">
        <ele>1701.309</ele>
        <time>2018-12-28T06:11:05Z</time>
      </trkpt>
      <trkpt lat="36.738370" lon="-110.237060">
        <ele>1701.508</ele>
        <time>2018-12-28T06:11:25Z</time>
      </trkpt>
      <trkpt lat="36.738660" lon="-110.236790">
        <ele>1702.154</ele>
        <time>2018-12-28T06:11:45Z</time>
      </trkpt>
      <trkpt lat="36.738900" lon="-110.236560">
        <ele>1702.682</ele>
        <time>2018-12-28T06:12:05Z</time>
      </trkpt>
      <trkpt lat="36.739110" lon="-110.236350">
        <ele>1703.137</ele>
        <time>2018-12-28T06:12:25Z</time>
      </trkpt>
      <trkpt lat="36.739290" lon="-110.236160">
        <ele>1703.348</ele>
        <time>2018-12-28T06:12:45Z</time>
      </trkpt>
      <trkpt lat="36.742290" lon="-110.231970">
        <ele>1705.132</ele>
        <time>2018-12-28T06:13:05Z</time>
      </trkpt>
      <trkpt lat="36.743100" lon="-110.230900">
        <ele>1704.059</ele>
        <time>2018-12-28T06:13:25Z</time>
      </trkpt>
      <trkpt lat="36.743490" lon="-110.230390">
        <ele>1704.824</ele>
        <time>2018-12-28T06:13:45Z</time>
      </trkpt>
      <trkpt lat="36.743990" lon="-110.229880">
        <ele>1705.853</ele>
        <time>2018-12-28T06:14:05Z</time>
      </trkpt>
      <trkpt lat="36.744640" lon="-110.229310">
        <ele>1706.118</ele>
        <time>2018-12-28T06:14:25Z</time>
      </trkpt>
      <trkpt lat="36.745220" lon="-110.228860">
        <ele>1707.198</ele>
        <time>2018-12-28T06:14:45Z</time>
      </trkpt>
      <trkpt lat="36.745940" lon="-110.228350">
        <ele>1710.317</ele>
        <time>2018-12-28T06:15:05Z</time>
      </trkpt>
      <trkpt lat="36.746940" lon="-110.227620">
        <ele>1710.808</ele>
        <time>2018-12-28T06:15:25Z</time>
      </trkpt>
      <trkpt lat="36.747560" lon="-110.227160">
        <ele>1712.884</ele>
        <time>2018-12-28T06:15:45Z</time>
      </trkpt>
      <trkpt lat="36.748200" lon="-110.226740">
        <ele>1712.452</ele>
        <time>2018-12-28T06:16:05Z</time>
      </trkpt>
      <trkpt lat="36.748700" lon="-110.226490">
        <ele>1713.357</ele>
        <time>2018-12-28T06:16:25Z</time>
      </trkpt>
      <trkpt lat="36.748920" lon="-110.226380">
        <ele>1714.258</ele>
        <time>2018-12-28T06:16:45Z</time>
      </trkpt>
      <trkpt lat="36.749120" lon="-110.226300">
        <ele>1715.582</ele>
        <time>2018-12-28T06:17:05Z</time>
      </trkpt>
      <trkpt lat="36.749610" lon="-110.226140">
        <ele>1716.289</ele>
        <time>2018-12-28T06:17:25Z</time>
      </trkpt>
      <trkpt lat="36.750020" lon="-110.226040">
        <ele>1714.484</ele>
        <time>2018-12-28T06:17:45Z</time>
      </trkpt>
      <trkpt lat="36.750540" lon="-110.225940">
        <ele>1714.293</ele>
        <time>2018-12-28T06:18:05Z</time>
      </trkpt>
      <trkpt lat="36.750990" lon="-110.225890">
        <ele>1715.247</ele>
        <time>2018-12-28T06:18:25Z</time>
      </trkpt>
      <trkpt lat="36.751170" lon="-110.225870">
        <ele>1715.829</ele>
        <time>2018-12-28T06:18:45Z</time>
      </trkpt>
      <trkpt lat="36.751360" lon="-110.225860">
        <ele>1716.521</ele>
        <time>2018-12-28T06:19:05Z</time>
      </trkpt>
      <trkpt lat="36.751490" lon="-110.225860">
        <ele>1717.008</ele>
        <time>2018-12-28T06:19:25Z</time>
      </trkpt>
      <trkpt lat="36.751870" lon="-110.225880">
        <ele>1718.947</ele>
        <time>2018-12-28T06:19:45Z</time>
      </trkpt>
      <trkpt lat="36.752400" lon="-110.225940">
        <ele>1720.835</ele>
        <time>2018-12-28T06:20:05Z</time>
      </trkpt>
      <trkpt lat="36.753510" lon="-110.226080">
        <ele>1725.620</ele>
        <time>2018-12-28T06:20:25Z</time>
      </trkpt>
      <trkpt lat="36.754010" lon="-110.226170">
        <ele>1726.671</ele>
        <time>2018-12-28T06:20:45Z</time>
      </trkpt>
      <trkpt lat="36.754560" lon="-110.226200">
        <ele>1727.725</ele>
        <time>2018-12-28T06:21:05Z</time>
      </trkpt>
      <trkpt lat="36.755770" lon="-110.226370">
        <ele>1732.172</ele>
        <time>2018-12-28T06:21:25Z</time>
      </trkpt>
      <trkpt lat="36.758490" lon="-110.226700">
        <ele>1721.357</ele>
        <time>2018-12-28T06:21:45Z</time>
      </trkpt>
      <trkpt lat="36.760550" lon="-110.226990">
        <ele>1713.766</ele>
        <time>2018-12-28T06:22:05Z</time>
      </trkpt>
      <trkpt lat="36.761670" lon="-110.227130">
        <ele>1712.615</ele>
        <time>2018-12-28T06:22:25Z</time>
      </trkpt>
      <trkpt lat="36.763000" lon="-110.227300">
        <ele>1710.065</ele>
        <time>2018-12-28T06:22:45Z</time>
      </trkpt>
      <trkpt lat="36.764430" lon="-110.227500">
        <ele>1708.211</ele>
        <time>2018-12-28T06:23:05Z</time>
      </trkpt>
      <trkpt lat="36.765240" lon="-110.227590">
        <ele>1707.008</ele>
        <time>2018-12-28T06:23:25Z</time>
      </trkpt>
      <trkpt lat="36.769730" lon="-110.228190">
        <ele>1699.014</ele>
        <time>2018-12-28T06:23:45Z</time>
      </trkpt>
      <trkpt lat="36.774490" lon="-110.228780">
        <ele>1699.762</ele>
        <time>2018-12-28T06:24:05Z</time>
      </trkpt>
      <trkpt lat="36.776630" lon="-110.229060">
        <ele>1701.557</ele>
        <time>2018-12-28T06:24:25Z</time>
      </trkpt>
      <trkpt lat="36.777770" lon="-110.229230">
        <ele>1702.848</ele>
        <time>2018-12-28T06:24:45Z</time>
      </trkpt>
      <trkpt lat="36.779030" lon="-110.229390">
        <ele>1704.432</ele>
        <time>2018-12-28T06:25:05Z</time>
      </trkpt>
      <trkpt lat="36.780080" lon="-110.229550">
        <ele>1705.329</ele>
        <time>2018-12-28T06:25:25Z</time>
      </trkpt>
      <trkpt lat="36.781950" lon="-110.229770">
        <ele>1706.164</ele>
        <time>2018-12-28T06:25:45Z</time>
      </trkpt>
      <trkpt lat="36.782440" lon="-110.229830">
        <ele>1706.333</ele>
        <time>2018-12-28T06:26:05Z</time>
      </trkpt>
      <trkpt lat="36.786140" lon="-110.230300">
        <ele>1708.029</ele>
        <time>2018-12-28T06:26:25Z</time>
      </trkpt>
      <trkpt lat="36.786430" lon="-110.230340">
        <ele>1708.000</ele>
        <time>2018-12-28T06:26:45Z</time>
      </trkpt>
      <trkpt lat="36.793470" lon="-110.231240">
        <ele>1714.820</ele>
        <time>2018-12-28T06:27:05Z</time>
      </trkpt>
      <trkpt lat="36.793680" lon="-110.231260">
        <ele>1713.708</ele>
        <time>2018-12-28T06:27:25Z</time>
      </trkpt>
      <trkpt lat="36.794310" lon="-110.231340">
        <ele>1716.025</ele>
        <time>2018-12-28T06:27:45Z</time>
      </trkpt>
      <trkpt lat="36.801360" lon="-110.232270">
        <ele>1714.843</ele>
        <time>2018-12-28T06:28:05Z</time>
      </trkpt>
      <trkpt lat="36.802730" lon="-110.232460">
        <ele>1716.498</ele>
        <time>2018-12-28T06:28:25Z</time>
      </trkpt>
      <trkpt lat="36.803000" lon="-110.232500">
        <ele>1716.839</ele>
        <time>2018-12-28T06:28:45Z</time>
      </trkpt>
      <trkpt lat="36.803280" lon="-110.232530">
        <ele>1717.293</ele>
        <time>2018-12-28T06:29:05Z</time>
      </trkpt>
      <trkpt lat="36.803890" lon="-110.232600">
        <ele>1717.680</ele>
        <time>2018-12-28T06:29:25Z</time>
      </trkpt>
      <trkpt lat="36.804490" lon="-110.232670">
        <ele>1718.175</ele>
        <time>2018-12-28T06:29:45Z</time>
      </trkpt>
      <trkpt lat="36.806930" lon="-110.233000">
        <ele>1719.144</ele>
        <time>2018-12-28T06:30:05Z</time>
      </trkpt>
      <trkpt lat="36.807180" lon="-110.233040">
        <ele>1719.539</ele>
        <time>2018-12-28T06:30:25Z</time>
      </trkpt>
      <trkpt lat="36.808500" lon="-110.233210">
        <ele>1726.401</ele>
        <time>2018-12-28T06:30:45Z</time>
      </trkpt>
      <trkpt lat="36.811410" lon="-110.233580">
        <ele>1723.321</ele>
        <time>2018-12-28T06:31:05Z</time>
      </trkpt>
      <trkpt lat="36.811630" lon="-110.233620">
        <ele>1722.008</ele>
        <time>2018-12-28T06:31:25Z</time>
      </trkpt>
      <trkpt lat="36.812070" lon="-110.233680">
        <ele>1720.196</ele>
        <time>2018-12-28T06:31:45Z</time>
      </trkpt>
      <trkpt lat="36.813440" lon="-110.233860">
        <ele>1718.644</ele>
        <time>2018-12-28T06:32:05Z</time>
      </trkpt>
      <trkpt lat="36.814860" lon="-110.234040">
        <ele>1718.029</ele>
        <time>2018-12-28T06:32:25Z</time>
      </trkpt>
      <trkpt lat="36.815890" lon="-110.234180">
        <ele>1710.620</ele>
        <time>2018-12-28T06:32:45Z</time>
      </trkpt>
      <trkpt lat="36.816490" lon="-110.234250">
        <ele>1707.984</ele>
        <time>2018-12-28T06:33:05Z</time>
      </trkpt>
      <trkpt lat="36.817950" lon="-110.234460">
        <ele>1706.971</ele>
        <time>2018-12-28T06:33:25Z</time>
      </trkpt>
      <trkpt lat="36.818170" lon="-110.234510">
        <ele>1707.176</ele>
        <time>2018-12-28T06:33:45Z</time>
      </trkpt>
      <trkpt lat="36.818390" lon="-110.234560">
        <ele>1707.415</ele>
        <time>2018-12-28T06:34:05Z</time>
      </trkpt>
      <trkpt lat="36.818600" lon="-110.234630">
        <ele>1707.429</ele>
        <time>2018-12-28T06:34:25Z</time>
      </trkpt>
      <trkpt lat="36.819020" lon="-110.234770">
        <ele>1706.500</ele>
        <time>2018-12-28T06:34:45Z</time>
      </trkpt>
      <trkpt lat="36.819350" lon="-110.234910">
        <ele>1706.420</ele>
        <time>2018-12-28T06:35:05Z</time>
      </trkpt>
      <trkpt lat="36.819650" lon="-110.235050">
        <ele>1705.208</ele>
        <time>2018-12-28T06:35:25Z</time>
      </trkpt>
      <trkpt lat="36.820210" lon="-110.235340">
        <ele>1704.245</ele>
        <time>2018-12-28T06:35:45Z</time>
      </trkpt>
      <trkpt lat="36.821000" lon="-110.235760">
        <ele>1702.153</ele>
        <time>2018-12-28T06:36:05Z</time>
      </trkpt>
      <trkpt lat="36.821200" lon="-110.235860">
        <ele>1701.528</ele>
        <time>2018-12-28T06:36:25Z</time>
      </trkpt>
      <trkpt lat="36.821420" lon="-110.235990">
        <ele>1700.999</ele>
        <time>2018-12-28T06:36:45Z</time>
      </trkpt>
      <trkpt lat="36.821900" lon="-110.236240">
        <ele>1700.753</ele>
        <time>2018-12-28T06:37:05Z</time>
      </trkpt>
      <trkpt lat="36.822220" lon="-110.236400">
        <ele>1700.990</ele>
        <time>2018-12-28T06:37:25Z</time>
      </trkpt>
      <trkpt lat="36.823050" lon="-110.236850">
        <ele>1699.155</ele>
        <time>2018-12-28T06:37:45Z</time>
      </trkpt>
      <trkpt lat="36.823840" lon="-110.237260">
        <ele>1698.614</ele>
        <time>2018-12-28T06:38:05Z</time>
      </trkpt>
      <trkpt lat="36.824490" lon="-110.237600">
        <ele>1699.473</ele>
        <time>2018-12-28T06:38:25Z</time>
      </trkpt>
      <trkpt lat="36.824800" lon="-110.237770">
        <ele>1699.185</ele>
        <time>2018-12-28T06:38:45Z</time>
      </trkpt>
      <trkpt lat="36.825000" lon="-110.237870">
        <ele>1698.613</ele>
        <time>2018-12-28T06:39:05Z</time>
      </trkpt>
      <trkpt lat="36.825180" lon="-110.237990">
        <ele>1697.808</ele>
        <time>2018-12-28T06:39:25Z</time>
      </trkpt>
      <trkpt lat="36.825390" lon="-110.238120">
        <ele>1697.540</ele>
        <time>2018-12-28T06:39:45Z</time>
      </trkpt>
      <trkpt lat="36.825590" lon="-110.238260">
        <ele>1696.988</ele>
        <time>2018-12-28T06:40:05Z</time>
      </trkpt>
      <trkpt lat="36.825700" lon="-110.238350">
        <ele>1696.623</ele>
        <time>2018-12-28T06:40:25Z</time>
      </trkpt>
      <trkpt lat="36.825930" lon="-110.238520">
        <ele>1696.224</ele>
        <time>2018-12-28T06:40:45Z</time>
      </trkpt>
      <trkpt lat="36.826140" lon="-110.238690">
        <ele>1695.068</ele>
        <time>2018-12-28T06:41:05Z</time>
      </trkpt>
      <trkpt lat="36.826360" lon="-110.238880">
        <ele>1693.815</ele>
        <time>2018-12-28T06:41:25Z</time>
      </trkpt>
      <trkpt lat="36.826620" lon="-110.239130">
        <ele>1692.450</ele>
        <time>2018-12-28T06:41:45Z</time>
      </trkpt>
      <trkpt lat="36.826990" lon="-110.239540">
        <ele>1691.639</ele>
        <time>2018-12-28T06:42:05Z</time>
      </trkpt>
      <trkpt lat="36.827670" lon="-110.240340">
        <ele>1690.212</ele>
        <time>2018-12-28T06:42:25Z</time>
      </trkpt>
      <trkpt lat="36.827830" lon="-110.240530">
        <ele>1690.232</ele>
        <time>2018-12-28T06:42:45Z</time>
      </trkpt>
      <trkpt lat="36.829660" lon="-110.242750">
        <ele>1686.405</ele>
        <time>2018-12-28T06:43:05Z</time>
      </trkpt>
      <trkpt lat="36.829840" lon="-110.242960">
        <ele>1684.408</ele>
        <time>2018-12-28T06:43:25Z</time>
      </trkpt>
      <trkpt lat="36.830110" lon="-110.243290">
        <ele>1683.724</ele>
        <time>2018-12-28T06:43:45Z</time>
      </trkpt>
      <trkpt lat="36.830800" lon="-110.244100">
        <ele>1683.542</ele>
        <time>2018-12-28T06:44:05Z</time>
      </trkpt>
      <trkpt lat="36.831290" lon="-110.244700">
        <ele>1683.667</ele>
        <time>2018-12-28T06:44:25Z</time>
      </trkpt>
      <trkpt lat="36.831990" lon="-110.245530">
        <ele>1683.648</ele>
        <time>2018-12-28T06:44:45Z</time>
      </trkpt>
      <trkpt lat="36.832470" lon="-110.246100">
        <ele>1683.612</ele>
        <time>2018-12-28T06:45:05Z</time>
      </trkpt>
      <trkpt lat="36.832870" lon="-110.246580">
        <ele>1683.589</ele>
        <time>2018-12-28T06:45:25Z</time>
      </trkpt>
      <trkpt lat="36.833280" lon="-110.247190">
        <ele>1683.694</ele>
        <time>2018-12-28T06:45:45Z</time>
      </trkpt>
      <trkpt lat="36.833720" lon="-110.247880">
        <ele>1683.573</ele>
        <time>2018-12-28T06:46:05Z</time>
      </trkpt>
      <trkpt lat="36.834060" lon="-110.248500">
        <ele>1683.735</ele>
        <time>2018-12-28T06:46:25Z</time>
      </trkpt>
      <trkpt lat="36.834110" lon="-110.248590">
        <ele>1683.886</ele>
        <time>2018-12-28T06:46:45Z</time>
      </trkpt>
      <trkpt lat="36.834570" lon="-110.249500">
        <ele>1682.614</ele>
        <time>2018-12-28T06:47:05Z</time>
      </trkpt>
      <trkpt lat="36.834880" lon="-110.250070">
        <ele>1681.408</ele>
        <time>2018-12-28T06:47:25Z</time>
      </trkpt>
      <trkpt lat="36.835170" lon="-110.250650">
        <ele>1681.626</ele>
        <time>2018-12-28T06:47:45Z</time>
      </trkpt>
      <trkpt lat="36.835940" lon="-110.252130">
        <ele>1683.984</ele>
        <time>2018-12-28T06:48:05Z</time>
      </trkpt>
      <trkpt lat="36.837390" lon="-110.254990">
        <ele>1680.259</ele>
        <time>2018-12-28T06:48:25Z</time>
      </trkpt>
      <trkpt lat="36.837790" lon="-110.255750">
        <ele>1680.570</ele>
        <time>2018-12-28T06:48:45Z</time>
      </trkpt>
      <trkpt lat="36.838160" lon="-110.256490">
        <ele>1679.654</ele>
        <time>2018-12-28T06:49:05Z</time>
      </trkpt>
      <trkpt lat="36.838500" lon="-110.257170">
        <ele>1677.871</ele>
        <time>2018-12-28T06:49:25Z</time>
      </trkpt>
      <trkpt lat="36.838550" lon="-110.257290">
        <ele>1677.456</ele>
        <time>2018-12-28T06:49:45Z</time>
      </trkpt>
      <trkpt lat="36.838710" lon="-110.257690">
        <ele>1676.165</ele>
        <time>2018-12-28T06:50:05Z</time>
      </trkpt>
      <trkpt lat="36.838930" lon="-110.258270">
        <ele>1674.571</ele>
        <time>2018-12-28T06:50:25Z</time>
      </trkpt>
      <trkpt lat="36.839070" lon="-110.258750">
        <ele>1674.341</ele>
        <time>2018-12-28T06:50:45Z</time>
      </trkpt>
      <trkpt lat="36.839230" lon="-110.259450">
        <ele>1674.015</ele>
        <time>2018-12-28T06:51:05Z</time>
      </trkpt>
      <trkpt lat="36.839400" lon="-110.260470">
        <ele>1674.508</ele>
        <time>2018-12-28T06:51:25Z</time>
      </trkpt>
      <trkpt lat="36.839520" lon="-110.261310">
        <ele>1675.480</ele>
        <time>2018-12-28T06:51:45Z</time>
      </trkpt>
      <trkpt lat="36.839650" lon="-110.262250">
        <ele>1675.798</ele>
        <time>2018-12-28T06:52:05Z</time>
      </trkpt>
      <trkpt lat="36.839760" lon="-110.262890">
        <ele>1675.243</ele>
        <time>2018-12-28T06:52:25Z</time>
      </trkpt>
      <trkpt lat="36.839910" lon="-110.263430">
        <ele>1674.134</ele>
        <time>2018-12-28T06:52:45Z</time>
      </trkpt>
      <trkpt lat="36.840080" lon="-110.263830">
        <ele>1673.348</ele>
        <time>2018-12-28T06:53:05Z</time>
      </trkpt>
      <trkpt lat="36.840310" lon="-110.264280">
        <ele>1672.795</ele>
        <time>2018-12-28T06:53:25Z</time>
      </trkpt>
      <trkpt lat="36.840540" lon="-110.264590">
        <ele>1672.160</ele>
        <time>2018-12-28T06:53:45Z</time>
      </trkpt>
      <trkpt lat="36.840810" lon="-110.264860">
        <ele>1671.369</ele>
        <time>2018-12-28T06:54:05Z</time>
      </trkpt>
      <trkpt lat="36.841170" lon="-110.265180">
        <ele>1671.356</ele>
        <time>2018-12-28T06:54:25Z</time>
      </trkpt>
      <trkpt lat="36.841280" lon="-110.265270">
        <ele>1671.359</ele>
        <time>2018-12-28T06:54:45Z</time>
      </trkpt>
      <trkpt lat="36.841990" lon="-110.265840">
        <ele>1672.714</ele>
        <time>2018-12-28T06:55:05Z</time>
      </trkpt>
      <trkpt lat="36.843750" lon="-110.267180">
        <ele>1672.008</ele>
        <time>2018-12-28T06:55:25Z</time>
      </trkpt>
      <trkpt lat="36.844490" lon="-110.267790">
        <ele>1672.968</ele>
        <time>2018-12-28T06:55:45Z</time>
      </trkpt>
      <trkpt lat="36.844650" lon="-110.267930">
        <ele>1673.056</ele>
        <time>2018-12-28T06:56:05Z</time>
      </trkpt>
      <trkpt lat="36.844780" lon="-110.268050">
        <ele>1673.131</ele>
        <time>2018-12-28T06:56:25Z</time>
      </trkpt>
      <trkpt lat="36.845720" lon="-110.268760">
        <ele>1671.272</ele>
        <time>2018-12-28T06:56:45Z</time>
      </trkpt>
      <trkpt lat="36.846810" lon="-110.269630">
        <ele>1665.986</ele>
        <time>2018-12-28T06:57:05Z</time>
      </trkpt>
      <trkpt lat="36.847480" lon="-110.270150">
        <ele>1662.463</ele>
        <time>2018-12-28T06:57:25Z</time>
      </trkpt>
      <trkpt lat="36.847680" lon="-110.270310">
        <ele>1661.338</ele>
        <time>2018-12-28T06:57:45Z</time>
      </trkpt>
      <trkpt lat="36.848000" lon="-110.270510">
        <ele>1660.087</ele>
        <time>2018-12-28T06:58:05Z</time>
      </trkpt>
      <trkpt lat="36.848220" lon="-110.270610">
        <ele>1659.586</ele>
        <time>2018-12-28T06:58:25Z</time>
      </trkpt>
      <trkpt lat="36.848420" lon="-110.270670">
        <ele>1659.060</ele>
        <time>2018-12-28T06:58:45Z</time>
      </trkpt>
      <trkpt lat="36.848600" lon="-110.270730">
        <ele>1658.826</ele>
        <time>2018-12-28T06:59:05Z</time>
      </trkpt>
      <trkpt lat="36.848880" lon="-110.270780">
        <ele>1658.308</ele>
        <time>2018-12-28T06:59:25Z</time>
      </trkpt>
      <trkpt lat="36.849200" lon="-110.270820">
        <ele>1657.581</ele>
        <time>2018-12-28T06:59:45Z</time>
      </trkpt>
      <trkpt lat="36.850760" lon="-110.270880">
        <ele>1653.269</ele>
        <time>2018-12-28T07:00:05Z</time>
      </trkpt>
      <trkpt lat="36.851910" lon="-110.270920">
        <ele>1649.914</ele>
        <time>2018-12-28T07:00:25Z</time>
      </trkpt>
      <trkpt lat="36.852760" lon="-110.270950">
        <ele>1648.275</ele>
        <time>2018-12-28T07:00:45Z</time>
      </trkpt>
      <trkpt lat="36.853060" lon="-110.270950">
        <ele>1647.859</ele>
        <time>2018-12-28T07:01:05Z</time>
      </trkpt>
      <trkpt lat="36.853270" lon="-110.270940">
        <ele>1647.636</ele>
        <time>2018-12-28T07:01:25Z</time>
      </trkpt>
      <trkpt lat="36.853450" lon="-110.270930">
        <ele>1647.411</ele>
        <time>2018-12-28T07:01:45Z</time>
      </trkpt>
      <trkpt lat="36.853620" lon="-110.270890">
        <ele>1647.290</ele>
        <time>2018-12-28T07:02:05Z</time>
      </trkpt>
      <trkpt lat="36.853850" lon="-110.270840">
        <ele>1646.676</ele>
        <time>2018-12-28T07:02:25Z</time>
      </trkpt>
      <trkpt lat="36.854260" lon="-110.270720">
        <ele>1643.990</ele>
        <time>2018-12-28T07:02:45Z</time>
      </trkpt>
      <trkpt lat="36.854620" lon="-110.270580">
        <ele>1641.119</ele>
        <time>2018-12-28T07:03:05Z</time>
      </trkpt>
      <trkpt lat="36.854820" lon="-110.270490">
        <ele>1639.908</ele>
        <time>2018-12-28T07:03:25Z</time>
      </trkpt>
      <trkpt lat="36.855780" lon="-110.269890">
        <ele>1636.060</ele>
        <time>2018-12-28T07:03:45Z</time>
      </trkpt>
      <trkpt lat="36.858010" lon="-110.268390">
        <ele>1626.448</ele>
        <time>2018-12-28T07:04:05Z</time>
      </trkpt>
      <trkpt lat="36.858890" lon="-110.267820">
        <ele>1623.033</ele>
        <time>2018-12-28T07:04:25Z</time>
      </trkpt>
      <trkpt lat="36.859680" lon="-110.267320">
        <ele>1621.894</ele>
        <time>2018-12-28T07:04:45Z</time>
      </trkpt>
      <trkpt lat="36.860100" lon="-110.267030">
        <ele>1621.698</ele>
        <time>2018-12-28T07:05:05Z</time>
      </trkpt>
      <trkpt lat="36.866540" lon="-110.262800">
        <ele>1617.245</ele>
        <time>2018-12-28T07:05:25Z</time>
      </trkpt>
      <trkpt lat="36.869250" lon="-110.260990">
        <ele>1611.020</ele>
        <time>2018-12-28T07:05:45Z</time>
      </trkpt>
      <trkpt lat="36.870590" lon="-110.260100">
        <ele>1611.779</ele>
        <time>2018-12-28T07:06:05Z</time>
      </trkpt>
      <trkpt lat="36.871510" lon="-110.259490">
        <ele>1612.951</ele>
        <time>2018-12-28T07:06:25Z</time>
      </trkpt>
      <trkpt lat="36.872080" lon="-110.259110">
        <ele>1613.301</ele>
        <time>2018-12-28T07:06:45Z</time>
      </trkpt>
      <trkpt lat="36.872320" lon="-110.258960">
        <ele>1613.311</ele>
        <time>2018-12-28T07:07:05Z</time>
      </trkpt>
      <trkpt lat="36.872610" lon="-110.258770">
        <ele>1613.308</ele>
        <time>2018-12-28T07:07:25Z</time>
      </trkpt>
      <trkpt lat="36.873350" lon="-110.258280">
        <ele>1613.778</ele>
        <time>2018-12-28T07:07:45Z</time>
      </trkpt>
      <trkpt lat="36.875390" lon="-110.256930">
        <ele>1613.676</ele>
        <time>2018-12-28T07:08:05Z</time>
      </trkpt>
      <trkpt lat="36.876850" lon="-110.255980">
        <ele>1614.471</ele>
        <time>2018-12-28T07:08:25Z</time>
      </trkpt>
      <trkpt lat="36.877830" lon="-110.255310">
        <ele>1612.752</ele>
        <time>2018-12-28T07:08:45Z</time>
      </trkpt>
      <trkpt lat="36.878100" lon="-110.255130">
        <ele>1613.146</ele>
        <time>2018-12-28T07:09:05Z</time>
      </trkpt>
      <trkpt lat="36.879570" lon="-110.254150">
        <ele>1615.563</ele>
        <time>2018-12-28T07:09:25Z</time>
      </trkpt>
      <trkpt lat="36.881850" lon="-110.252630">
        <ele>1618.218</ele>
        <time>2018-12-28T07:09:45Z</time>
      </trkpt>
      <trkpt lat="36.882610" lon="-110.252140">
        <ele>1618.227</ele>
        <time>2018-12-28T07:10:05Z</time>
      </trkpt>
      <trkpt lat="36.882970" lon="-110.251900">
        <ele>1618.526</ele>
        <time>2018-12-28T07:10:25Z</time>
      </trkpt>
      <trkpt lat="36.883610" lon="-110.251450">
        <ele>1616.947</ele>
        <time>2018-12-28T07:10:45Z</time>
      </trkpt>
      <trkpt lat="36.885330" lon="-110.250300">
        <ele>1615.411</ele>
        <time>2018-12-28T07:11:05Z</time>
      </trkpt>
      <trkpt lat="36.886240" lon="-110.249700">
        <ele>1614.608</ele>
        <time>2018-12-28T07:11:25Z</time>
      </trkpt>
      <trkpt lat="36.888290" lon="-110.248340">
        <ele>1615.155</ele>
        <time>2018-12-28T07:11:45Z</time>
      </trkpt>
      <trkpt lat="36.888760" lon="-110.248020">
        <ele>1614.723</ele>
        <time>2018-12-28T07:12:05Z</time>
      </trkpt>
      <trkpt lat="36.890480" lon="-110.246880">
        <ele>1615.768</ele>
        <time>2018-12-28T07:12:25Z</time>
      </trkpt>
      <trkpt lat="36.893840" lon="-110.244760">
        <ele>1614.999</ele>
        <time>2018-12-28T07:12:45Z</time>
      </trkpt>
      <trkpt lat="36.895050" lon="-110.243990">
        <ele>1613.263</ele>
        <time>2018-12-28T07:13:05Z</time>
      </trkpt>
      <trkpt lat="36.896860" lon="-110.242840">
        <ele>1610.820</ele>
        <time>2018-12-28T07:13:25Z</time>
      </trkpt>
      <trkpt lat="36.899470" lon="-110.241190">
        <ele>1610.915</ele>
        <time>2018-12-28T07:13:45Z</time>
      </trkpt>
      <trkpt lat="36.900970" lon="-110.240230">
        <ele>1609.914</ele>
        <time>2018-12-28T07:14:05Z</time>
      </trkpt>
      <trkpt lat="36.901930" lon="-110.239620">
        <ele>1609.372</ele>
        <time>2018-12-28T07:14:25Z</time>
      </trkpt>
      <trkpt lat="36.902290" lon="-110.239400">
        <ele>1609.613</ele>
        <time>2018-12-28T07:14:45Z</time>
      </trkpt>
      <trkpt lat="36.902620" lon="-110.239190">
        <ele>1609.814</ele>
        <time>2018-12-28T07:15:05Z</time>
      </trkpt>
      <trkpt lat="36.903820" lon="-110.238420">
        <ele>1609.808</ele>
        <time>2018-12-28T07:15:25Z</time>
      </trkpt>
      <trkpt lat="36.905160" lon="-110.237570">
        <ele>1610.990</ele>
        <time>2018-12-28T07:15:45Z</time>
      </trkpt>
      <trkpt lat="36.906130" lon="-110.236950">
        <ele>1611.678</ele>
        <time>2018-12-28T07:16:05Z</time>
      </trkpt>
      <trkpt lat="36.907020" lon="-110.236380">
        <ele>1611.783</ele>
        <time>2018-12-28T07:16:25Z</time>
      </trkpt>
      <trkpt lat="36.908350" lon="-110.235530">
        <ele>1612.264</ele>
        <time>2018-12-28T07:16:45Z</time>
      </trkpt>
      <trkpt lat="36.908550" lon="-110.235400">
        <ele>1612.798</ele>
        <time>2018-12-28T07:17:05Z</time>
      </trkpt>
      <trkpt lat="36.918610" lon="-110.229010">
        <ele>1615.985</ele>
        <time>2018-12-28T07:17:25Z</time>
      </trkpt>
      <trkpt lat="36.925100" lon="-110.224880">
        <ele>1618.330</ele>
        <time>2018-12-28T07:17:45Z</time>
      </trkpt>
      <trkpt lat="36.926190" lon="-110.224200">
        <ele>1619.139</ele>
        <time>2018-12-28T07:18:05Z</time>
      </trkpt>
      <trkpt lat="36.927630" lon="-110.223290">
        <ele>1617.838</ele>
        <time>2018-12-28T07:18:25Z</time>
      </trkpt>
      <trkpt lat="36.928040" lon="-110.223020">
        <ele>1618.070</ele>
        <time>2018-12-28T07:18:45Z</time>
      </trkpt>
      <trkpt lat="36.928500" lon="-110.222720">
        <ele>1618.117</ele>
        <time>2018-12-28T07:19:05Z</time>
      </trkpt>
      <trkpt lat="36.928930" lon="-110.222410">
        <ele>1616.708</ele>
        <time>2018-12-28T07:19:25Z</time>
      </trkpt>
      <trkpt lat="36.929860" lon="-110.221760">
        <ele>1615.166</ele>
        <time>2018-12-28T07:19:45Z</time>
      </trkpt>
      <trkpt lat="36.931050" lon="-110.220910">
        <ele>1609.944</ele>
        <time>2018-12-28T07:20:05Z</time>
      </trkpt>
      <trkpt lat="36.931380" lon="-110.220680">
        <ele>1610.149</ele>
        <time>2018-12-28T07:20:25Z</time>
      </trkpt>
      <trkpt lat="36.931660" lon="-110.220480">
        <ele>1610.210</ele>
        <time>2018-12-28T07:20:45Z</time>
      </trkpt>
      <trkpt lat="36.932330" lon="-110.220020">
        <ele>1610.214</ele>
        <time>2018-12-28T07:21:05Z</time>
      </trkpt>
      <trkpt lat="36.934830" lon="-110.218240">
        <ele>1608.991</ele>
        <time>2018-12-28T07:21:25Z</time>
      </trkpt>
      <trkpt lat="36.936290" lon="-110.217210">
        <ele>1608.866</ele>
        <time>2018-12-28T07:21:45Z</time>
      </trkpt>
      <trkpt lat="36.938000" lon="-110.216010">
        <ele>1609.885</ele>
        <time>2018-12-28T07:22:05Z</time>
      </trkpt>
      <trkpt lat="36.938080" lon="-110.215950">
        <ele>1609.857</ele>
        <time>2018-12-28T07:22:25Z</time>
      </trkpt>
      <trkpt lat="36.938560" lon="-110.215610">
        <ele>1610.600</ele>
        <time>2018-12-28T07:22:45Z</time>
      </trkpt>
      <trkpt lat="36.940040" lon="-110.214560">
        <ele>1615.120</ele>
        <time>2018-12-28T07:23:05Z</time>
      </trkpt>
      <trkpt lat="36.940630" lon="-110.214150">
        <ele>1616.608</ele>
        <time>2018-12-28T07:23:25Z</time>
      </trkpt>
      <trkpt lat="36.941070" lon="-110.213840">
        <ele>1617.458</ele>
        <time>2018-12-28T07:23:45Z</time>
      </trkpt>
      <trkpt lat="36.941300" lon="-110.213670">
        <ele>1617.786</ele>
        <time>2018-12-28T07:24:05Z</time>
      </trkpt>
      <trkpt lat="36.941470" lon="-110.213550">
        <ele>1617.771</ele>
        <time>2018-12-28T07:24:25Z</time>
      </trkpt>
      <trkpt lat="36.942020" lon="-110.213140">
        <ele>1617.872</ele>
        <time>2018-12-28T07:24:45Z</time>
      </trkpt>
      <trkpt lat="36.942200" lon="-110.213000">
        <ele>1617.546</ele>
        <time>2018-12-28T07:25:05Z</time>
      </trkpt>
      <trkpt lat="36.942430" lon="-110.212830">
        <ele>1617.223</ele>
        <time>2018-12-28T07:25:25Z</time>
      </trkpt>
      <trkpt lat="36.942600" lon="-110.212700">
        <ele>1615.988</ele>
        <time>2018-12-28T07:25:45Z</time>
      </trkpt>
      <trkpt lat="36.942680" lon="-110.212620">
        <ele>1615.167</ele>
        <time>2018-12-28T07:26:05Z</time>
      </trkpt>
      <trkpt lat="36.942740" lon="-110.212570">
        <ele>1614.451</ele>
        <time>2018-12-28T07:26:25Z</time>
      </trkpt>
      <trkpt lat="36.942840" lon="-110.212490">
        <ele>1612.701</ele>
        <time>2018-12-28T07:26:45Z</time>
      </trkpt>
      <trkpt lat="36.943020" lon="-110.212340">
        <ele>1610.611</ele>
        <time>2018-12-28T07:27:05Z</time>
      </trkpt>
      <trkpt lat="36.943310" lon="-110.212130">
        <ele>1610.408</ele>
        <time>2018-12-28T07:27:25Z</time>
      </trkpt>
      <trkpt lat="36.943720" lon="-110.211810">
        <ele>1607.728</ele>
        <time>2018-12-28T07:27:45Z</time>
      </trkpt>
      <trkpt lat="36.943860" lon="-110.211690">
        <ele>1605.966</ele>
        <time>2018-12-28T07:28:05Z</time>
      </trkpt>
      <trkpt lat="36.943990" lon="-110.211590">
        <ele>1604.681</ele>
        <time>2018-12-28T07:28:25Z</time>
      </trkpt>
      <trkpt lat="36.944150" lon="-110.211470">
        <ele>1604.172</ele>
        <time>2018-12-28T07:28:45Z</time>
      </trkpt>
      <trkpt lat="36.945830" lon="-110.210210">
        <ele>1602.966</ele>
        <time>2018-12-28T07:29:05Z</time>
      </trkpt>
      <trkpt lat="36.946500" lon="-110.209710">
        <ele>1602.483</ele>
        <time>2018-12-28T07:29:25Z</time>
      </trkpt>
      <trkpt lat="36.947800" lon="-110.208700">
        <ele>1600.398</ele>
        <time>2018-12-28T07:29:45Z</time>
      </trkpt>
      <trkpt lat="36.950620" lon="-110.206540">
        <ele>1599.037</ele>
        <time>2018-12-28T07:30:05Z</time>
      </trkpt>
      <trkpt lat="36.951470" lon="-110.205880">
        <ele>1598.159</ele>
        <time>2018-12-28T07:30:25Z</time>
      </trkpt>
      <trkpt lat="36.952100" lon="-110.205390">
        <ele>1598.103</ele>
        <time>2018-12-28T07:30:45Z</time>
      </trkpt>
      <trkpt lat="36.953050" lon="-110.204670">
        <ele>1597.923</ele>
        <time>2018-12-28T07:31:05Z</time>
      </trkpt>
      <trkpt lat="36.953810" lon="-110.204090">
        <ele>1597.408</ele>
        <time>2018-12-28T07:31:25Z</time>
      </trkpt>
      <trkpt lat="36.954400" lon="-110.203630">
        <ele>1597.268</ele>
        <time>2018-12-28T07:31:45Z</time>
      </trkpt>
      <trkpt lat="36.954790" lon="-110.203340">
        <ele>1597.136</ele>
        <time>2018-12-28T07:32:05Z</time>
      </trkpt>
      <trkpt lat="36.955170" lon="-110.203050">
        <ele>1596.831</ele>
        <time>2018-12-28T07:32:25Z</time>
      </trkpt>
      <trkpt lat="36.955520" lon="-110.202780">
        <ele>1596.622</ele>
        <time>2018-12-28T07:32:45Z</time>
      </trkpt>
      <trkpt lat="36.955970" lon="-110.202440">
        <ele>1596.576</ele>
        <time>2018-12-28T07:33:05Z</time>
      </trkpt>
      <trkpt lat="36.956310" lon="-110.202170">
        <ele>1596.213</ele>
        <time>2018-12-28T07:33:25Z</time>
      </trkpt>
      <trkpt lat="36.956840" lon="-110.201770">
        <ele>1595.948</ele>
        <time>2018-12-28T07:33:45Z</time>
      </trkpt>
      <trkpt lat="36.958310" lon="-110.200640">
        <ele>1595.587</ele>
        <time>2018-12-28T07:34:05Z</time>
      </trkpt>
      <trkpt lat="36.958800" lon="-110.200270">
        <ele>1594.986</ele>
        <time>2018-12-28T07:34:25Z</time>
      </trkpt>
      <trkpt lat="36.959660" lon="-110.199610">
        <ele>1594.460</ele>
        <time>2018-12-28T07:34:45Z</time>
      </trkpt>
      <trkpt lat="36.959970" lon="-110.199370">
        <ele>1594.326</ele>
        <time>2018-12-28T07:35:05Z</time>
      </trkpt>
      <trkpt lat="36.960840" lon="-110.198700">
        <ele>1593.608</ele>
        <time>2018-12-28T07:35:25Z</time>
      </trkpt>
      <trkpt lat="36.962560" lon="-110.197380">
        <ele>1592.051</ele>
        <time>2018-12-28T07:35:45Z</time>
      </trkpt>
      <trkpt lat="36.963380" lon="-110.196760">
        <ele>1591.819</ele>
        <time>2018-12-28T07:36:05Z</time>
      </trkpt>
      <trkpt lat="36.964770" lon="-110.195680">
        <ele>1591.234</ele>
        <time>2018-12-28T07:36:25Z</time>
      </trkpt>
      <trkpt lat="36.965530" lon="-110.195100">
        <ele>1591.125</ele>
        <time>2018-12-28T07:36:45Z</time>
      </trkpt>
      <trkpt lat="36.966910" lon="-110.194030">
        <ele>1591.089</ele>
        <time>2018-12-28T07:37:05Z</time>
      </trkpt>
      <trkpt lat="36.967610" lon="-110.193500">
        <ele>1591.626</ele>
        <time>2018-12-28T07:37:25Z</time>
      </trkpt>
      <trkpt lat="36.967940" lon="-110.193250">
        <ele>1591.711</ele>
        <time>2018-12-28T07:37:45Z</time>
      </trkpt>
      <trkpt lat="36.969070" lon="-110.192380">
        <ele>1592.070</ele>
        <time>2018-12-28T07:38:05Z</time>
      </trkpt>
      <trkpt lat="36.969460" lon="-110.192080">
        <ele>1592.098</ele>
        <time>2018-12-28T07:38:25Z</time>
      </trkpt>
      <trkpt lat="36.969850" lon="-110.191780">
        <ele>1593.215</ele>
        <time>2018-12-28T07:38:45Z</time>
      </trkpt>
      <trkpt lat="36.970020" lon="-110.191650">
        <ele>1593.726</ele>
        <time>2018-12-28T07:39:05Z</time>
      </trkpt>
      <trkpt lat="36.970710" lon="-110.191130">
        <ele>1595.508</ele>
        <time>2018-12-28T07:39:25Z</time>
      </trkpt>
      <trkpt lat="36.971120" lon="-110.190820">
        <ele>1596.012</ele>
        <time>2018-12-28T07:39:45Z</time>
      </trkpt>
      <trkpt lat="36.971470" lon="-110.190540">
        <ele>1596.780</ele>
        <time>2018-12-28T07:40:05Z</time>
      </trkpt>
      <trkpt lat="36.971820" lon="-110.190270">
        <ele>1597.465</ele>
        <time>2018-12-28T07:40:25Z</time>
      </trkpt>
      <trkpt lat="36.972330" lon="-110.189870">
        <ele>1598.156</ele>
        <time>2018-12-28T07:40:45Z</time>
      </trkpt>
      <trkpt lat="36.972540" lon="-110.189710">
        <ele>1598.110</ele>
        <time>2018-12-28T07:41:05Z</time>
      </trkpt>
      <trkpt lat="36.973620" lon="-110.188890">
        <ele>1603.957</ele>
        <time>2018-12-28T07:41:25Z</time>
      </trkpt>
      <trkpt lat="36.973660" lon="-110.188860">
        <ele>1604.082</ele>
        <time>2018-12-28T07:41:45Z</time>
      </trkpt>
      <trkpt lat="36.974200" lon="-110.188440">
        <ele>1605.311</ele>
        <time>2018-12-28T07:42:05Z</time>
      </trkpt>
      <trkpt lat="36.974510" lon="-110.188210">
        <ele>1605.638</ele>
        <time>2018-12-28T07:42:25Z</time>
      </trkpt>
      <trkpt lat="36.974590" lon="-110.188150">
        <ele>1605.770</ele>
        <time>2018-12-28T07:42:45Z</time>
      </trkpt>
      <trkpt lat="36.974750" lon="-110.188030">
        <ele>1606.017</ele>
        <time>2018-12-28T07:43:05Z</time>
      </trkpt>
      <trkpt lat="36.975480" lon="-110.187480">
        <ele>1606.808</ele>
        <time>2018-12-28T07:43:25Z</time>
      </trkpt>
      <trkpt lat="36.975960" lon="-110.187110">
        <ele>1607.356</ele>
        <time>2018-12-28T07:43:45Z</time>
      </trkpt>
      <trkpt lat="36.977010" lon="-110.186310">
        <ele>1607.354</ele>
        <time>2018-12-28T07:44:05Z</time>
      </trkpt>
      <trkpt lat="36.977190" lon="-110.186170">
        <ele>1607.159</ele>
        <time>2018-12-28T07:44:25Z</time>
      </trkpt>
      <trkpt lat="36.978370" lon="-110.185250">
        <ele>1606.310</ele>
        <time>2018-12-28T07:44:45Z</time>
      </trkpt>
      <trkpt lat="36.978830" lon="-110.184880">
        <ele>1606.474</ele>
        <time>2018-12-28T07:45:05Z</time>
      </trkpt>
      <trkpt lat="36.979970" lon="-110.184020">
        <ele>1606.771</ele>
        <time>2018-12-28T07:45:25Z</time>
      </trkpt>
      <trkpt lat="36.980790" lon="-110.183380">
        <ele>1605.846</ele>
        <time>2018-12-28T07:45:45Z</time>
      </trkpt>
      <trkpt lat="36.981710" lon="-110.182680">
        <ele>1606.075</ele>
        <time>2018-12-28T07:46:05Z</time>
      </trkpt>
      <trkpt lat="36.982580" lon="-110.182030">
        <ele>1606.318</ele>
        <time>2018-12-28T07:46:25Z</time>
      </trkpt>
      <trkpt lat="36.982880" lon="-110.181840">
        <ele>1606.698</ele>
        <time>2018-12-28T07:46:45Z</time>
      </trkpt>
      <trkpt lat="36.983140" lon="-110.181690">
        <ele>1606.717</ele>
        <time>2018-12-28T07:47:05Z</time>
      </trkpt>
      <trkpt lat="36.983520" lon="-110.181500">
        <ele>1606.408</ele>
        <time>2018-12-28T07:47:25Z</time>
      </trkpt>
      <trkpt lat="36.983790" lon="-110.181370">
        <ele>1605.814</ele>
        <time>2018-12-28T07:47:45Z</time>
      </trkpt>
      <trkpt lat="36.984000" lon="-110.181280">
        <ele>1605.042</ele>
        <time>2018-12-28T07:48:05Z</time>
      </trkpt>
      <trkpt lat="36.984270" lon="-110.181170">
        <ele>1604.387</ele>
        <time>2018-12-28T07:48:25Z</time>
      </trkpt>
      <trkpt lat="36.984800" lon="-110.180970">
        <ele>1604.278</ele>
        <time>2018-12-28T07:48:45Z</time>
      </trkpt>
      <trkpt lat="36.985440" lon="-110.180720">
        <ele>1604.222</ele>
        <time>2018-12-28T07:49:05Z</time>
      </trkpt>
      <trkpt lat="36.986040" lon="-110.180500">
        <ele>1604.029</ele>
        <time>2018-12-28T07:49:25Z</time>
      </trkpt>
      <trkpt lat="36.987240" lon="-110.180040">
        <ele>1602.924</ele>
        <time>2018-12-28T07:49:45Z</time>
      </trkpt>
      <trkpt lat="36.987990" lon="-110.179740">
        <ele>1601.943</ele>
        <time>2018-12-28T07:50:05Z</time>
      </trkpt>
      <trkpt lat="36.989190" lon="-110.179270">
        <ele>1598.241</ele>
        <time>2018-12-28T07:50:25Z</time>
      </trkpt>
      <trkpt lat="36.989910" lon="-110.179000">
        <ele>1598.181</ele>
        <time>2018-12-28T07:50:45Z</time>
      </trkpt>
      <trkpt lat="36.990780" lon="-110.178660">
        <ele>1598.009</ele>
        <time>2018-12-28T07:51:05Z</time>
      </trkpt>
      <trkpt lat="36.993350" lon="-110.177680">
        <ele>1595.008</ele>
        <time>2018-12-28T07:51:25Z</time>
      </trkpt>
      <trkpt lat="36.994090" lon="-110.177380">
        <ele>1592.397</ele>
        <time>2018-12-28T07:51:45Z</time>
      </trkpt>
      <trkpt lat="36.994900" lon="-110.177070">
        <ele>1592.025</ele>
        <time>2018-12-28T07:52:05Z</time>
      </trkpt>
      <trkpt lat="36.998590" lon="-110.175660">
        <ele>1589.030</ele>
        <time>2018-12-28T07:52:25Z</time>
      </trkpt>
      <trkpt lat="36.998740" lon="-110.175600">
        <ele>1588.971</ele>
        <time>2018-12-28T07:52:45Z</time>
      </trkpt>
      <trkpt lat="36.999630" lon="-110.175250">
        <ele>1587.495</ele>
        <time>2018-12-28T07:53:05Z</time>
      </trkpt>
      <trkpt lat="37.000230" lon="-110.175020">
        <ele>1588.442</ele>
        <time>2018-12-28T07:53:25Z</time>
      </trkpt>
      <trkpt lat="37.001050" lon="-110.174720">
        <ele>1588.187</ele>
        <time>2018-12-28T07:53:45Z</time>
      </trkpt>
      <trkpt lat="37.004240" lon="-110.173480">
        <ele>1584.596</ele>
        <time>2018-12-28T07:54:05Z</time>
      </trkpt>
      <trkpt lat="37.004245" lon="-110.173479">
        <ele>1584.598</ele>
        <time>2018-12-28T07:54:25Z</time>
      </trkpt>
      <trkpt lat="37.003730" lon="-110.171810">
        <ele>1585.915</ele>
        <time>2018-12-28T07:54:45Z</time>
      </trkpt>
      <trkpt lat="37.003390" lon="-110.170750">
        <ele>1585.626</ele>
        <time>2018-12-28T07:55:05Z</time>
      </trkpt>
      <trkpt lat="37.003280" lon="-110.170400">
        <ele>1585.708</ele>
        <time>2018-12-28T07:55:25Z</time>
      </trkpt>
      <trkpt lat="37.002190" lon="-110.166870">
        <ele>1587.822</ele>
        <time>2018-12-28T07:55:45Z</time>
      </trkpt>
      <trkpt lat="37.001530" lon="-110.164770">
        <ele>1591.470</ele>
        <time>2018-12-28T07:56:05Z</time>
      </trkpt>
      <trkpt lat="37.000460" lon="-110.161290">
        <ele>1596.925</ele>
        <time>2018-12-28T07:56:25Z</time>
      </trkpt>
      <trkpt lat="37.000040" lon="-110.159980">
        <ele>1597.976</ele>
        <time>2018-12-28T07:56:45Z</time>
      </trkpt>
      <trkpt lat="36.998390" lon="-110.155270">
        <ele>1602.390</ele>
        <time>2018-12-28T07:57:05Z</time>
      </trkpt>
      <trkpt lat="36.997650" lon="-110.153230">
        <ele>1605.197</ele>
        <time>2018-12-28T07:57:25Z</time>
      </trkpt>
      <trkpt lat="36.997490" lon="-110.152780">
        <ele>1605.932</ele>
        <time>2018-12-28T07:57:45Z</time>
      </trkpt>
      <trkpt lat="36.997170" lon="-110.151900">
        <ele>1607.951</ele>
        <time>2018-12-28T07:58:05Z</time>
      </trkpt>
      <trkpt lat="36.996920" lon="-110.151230">
        <ele>1609.764</ele>
        <time>2018-12-28T07:58:25Z</time>
      </trkpt>
      <trkpt lat="36.996120" lon="-110.149000">
        <ele>1613.206</ele>
        <time>2018-12-28T07:58:45Z</time>
      </trkpt>
      <trkpt lat="36.994490" lon="-110.144550">
        <ele>1619.116</ele>
        <time>2018-12-28T07:59:05Z</time>
      </trkpt>
      <trkpt lat="36.993620" lon="-110.142070">
        <ele>1622.708</ele>
        <time>2018-12-28T07:59:25Z</time>
      </trkpt>
      <trkpt lat="36.993616" lon="-110.142072">
        <ele>1622.739</ele>
        <time>2018-12-28T07:59:45Z</time>
      </trkpt>
      <trkpt lat="36.993616" lon="-110.142072">
        <ele>1622.746</ele>
        <time>2018-12-27T19:00:29Z</time>
      </trkpt>
      <trkpt lat="36.994490" lon="-110.144550">
        <ele>1619.188</ele>
        <time>2018-12-27T19:00:49Z</time>
      </trkpt>
      <trkpt lat="36.996120" lon="-110.149000">
        <ele>1613.216</ele>
        <time>2018-12-27T19:01:09Z</time>
      </trkpt>
      <trkpt lat="36.996920" lon="-110.151230">
        <ele>1609.708</ele>
        <time>2018-12-27T19:01:29Z</time>
      </trkpt>
      <trkpt lat="36.997170" lon="-110.151900">
        <ele>1607.967</ele>
        <time>2018-12-27T19:01:49Z</time>
      </trkpt>
      <trkpt lat="36.997490" lon="-110.152780">
        <ele>1605.915</ele>
        <time>2018-12-27T19:02:09Z</time>
      </trkpt>
      <trkpt lat="36.997650" lon="-110.153230">
        <ele>1605.170</ele>
        <time>2018-12-27T19:02:29Z</time>
      </trkpt>
      <trkpt lat="36.998390" lon="-110.155270">
        <ele>1602.351</ele>
        <time>2018-12-27T19:02:49Z</time>
      </trkpt>
      <trkpt lat="37.000040" lon="-110.159980">
        <ele>1597.966</ele>
        <time>2018-12-27T19:03:09Z</time>
      </trkpt>
      <trkpt lat="37.000460" lon="-110.161290">
        <ele>1596.914</ele>
        <time>2018-12-27T19:03:29Z</time>
      </trkpt>
      <trkpt lat="37.001530" lon="-110.164770">
        <ele>1591.416</ele>
        <time>2018-12-27T19:03:49Z</time>
      </trkpt>
      <trkpt lat="37.002190" lon="-110.166870">
        <ele>1587.815</ele>
        <time>2018-12-27T19:04:09Z</time>
      </trkpt>
      <trkpt lat="37.003280" lon="-110.170400">
        <ele>1585.773</ele>
        <time>2018-12-27T19:04:29Z</time>
      </trkpt>
      <trkpt lat="37.003390" lon="-110.170750">
        <ele>1585.685</ele>
        <time>2018-12-27T19:04:49Z</time>
      </trkpt>
      <trkpt lat="37.003730" lon="-110.171810">
        <ele>1585.913</ele>
        <time>2018-12-27T19:05:09Z</time>
      </trkpt>
      <trkpt lat="37.004240" lon="-110.173480">
        <ele>1584.508</ele>
        <time>2018-12-27T19:05:29Z</time>
      </trkpt>
      <trkpt lat="37.004245" lon="-110.173479">
        <ele>1584.550</ele>
        <time>2018-12-27T19:05:49Z</time>
      </trkpt>
      <trkpt lat="37.001050" lon="-110.174720">
        <ele>1588.198</ele>
        <time>2018-12-27T19:06:09Z</time>
      </trkpt>
      <trkpt lat="37.000230" lon="-110.175020">
        <ele>1588.453</ele>
        <time>2018-12-27T19:06:29Z</time>
      </trkpt>
      <trkpt lat="36.999630" lon="-110.175250">
        <ele>1587.414</ele>
        <time>2018-12-27T19:06:49Z</time>
      </trkpt>
      <trkpt lat="36.998740" lon="-110.175600">
        <ele>1588.969</ele>
        <time>2018-12-27T19:07:09Z</time>
      </trkpt>
      <trkpt lat="36.998590" lon="-110.175660">
        <ele>1589.037</ele>
        <time>2018-12-27T19:07:29Z</time>
      </trkpt>
      <trkpt lat="36.994900" lon="-110.177070">
        <ele>1592.099</ele>
        <time>2018-12-27T19:07:49Z</time>
      </trkpt>
      <trkpt lat="36.994090" lon="-110.177380">
        <ele>1592.388</ele>
        <time>2018-12-27T19:08:09Z</time>
      </trkpt>
      <trkpt lat="36.993350" lon="-110.177680">
        <ele>1595.079</ele>
        <time>2018-12-27T19:08:29Z</time>
      </trkpt>
      <trkpt lat="36.990780" lon="-110.178660">
        <ele>1598.005</ele>
        <time>2018-12-27T19:08:49Z</time>
      </trkpt>
      <trkpt lat="36.989910" lon="-110.179000">
        <ele>1598.125</ele>
        <time>2018-12-27T19:09:09Z</time>
      </trkpt>
      <trkpt lat="36.989190" lon="-110.179270">
        <ele>1598.208</ele>
        <time>2018-12-27T19:09:29Z</time>
      </trkpt>
      <trkpt lat="36.987990" lon="-110.179740">
        <ele>1601.970</ele>
        <time>2018-12-27T19:09:49Z</time>
      </trkpt>
      <trkpt lat="36.987240" lon="-110.180040">
        <ele>1602.918</ele>
        <time>2018-12-27T19:10:09Z</time>
      </trkpt>
      <trkpt lat="36.986040" lon="-110.180500">
        <ele>1604.033</ele>
        <time>2018-12-27T19:10:29Z</time>
      </trkpt>
      <trkpt lat="36.985440" lon="-110.180720">
        <ele>1604.244</ele>
        <time>2018-12-27T19:10:49Z</time>
      </trkpt>
      <trkpt lat="36.984800" lon="-110.180970">
        <ele>1604.289</ele>
        <time>2018-12-27T19:11:09Z</time>
      </trkpt>
      <trkpt lat="36.984270" lon="-110.181170">
        <ele>1604.357</ele>
        <time>2018-12-27T19:11:29Z</time>
      </trkpt>
      <trkpt lat="36.984000" lon="-110.181280">
        <ele>1605.029</ele>
        <time>2018-12-27T19:11:49Z</time>
      </trkpt>
      <trkpt lat="36.983790" lon="-110.181370">
        <ele>1605.888</ele>
        <time>2018-12-27T19:12:09Z</time>
      </trkpt>
      <trkpt lat="36.983520" lon="-110.181500">
        <ele>1606.422</ele>
        <time>2018-12-27T19:12:29Z</time>
      </trkpt>
      <trkpt lat="36.983140" lon="-110.181690">
        <ele>1606.762</ele>
        <time>2018-12-27T19:12:49Z</time>
      </trkpt>
      <trkpt lat="36.982880" lon="-110.181840">
        <ele>1606.608</ele>
        <time>2018-12-27T19:13:09Z</time>
      </trkpt>
      <trkpt lat="36.982580" lon="-110.182030">
        <ele>1606.308</ele>
        <time>2018-12-27T19:13:29Z</time>
      </trkpt>
      <trkpt lat="36.981710" lon="-110.182680">
        <ele>1606.045</ele>
        <time>2018-12-27T19:13:49Z</time>
      </trkpt>
      <trkpt lat="36.980790" lon="-110.183380">
        <ele>1605.813</ele>
        <time>2018-12-27T19:14:09Z</time>
      </trkpt>
      <trkpt lat="36.979970" lon="-110.184020">
        <ele>1606.778</ele>
        <time>2018-12-27T19:14:29Z</time>
      </trkpt>
      <trkpt lat="36.978830" lon="-110.184880">
        <ele>1606.459</ele>
        <time>2018-12-27T19:14:49Z</time>
      </trkpt>
      <trkpt lat="36.978370" lon="-110.185250">
        <ele>1606.334</ele>
        <time>2018-12-27T19:15:09Z</time>
      </trkpt>
      <trkpt lat="36.977190" lon="-110.186170">
        <ele>1607.182</ele>
        <time>2018-12-27T19:15:29Z</time>
      </trkpt>
      <trkpt lat="36.977010" lon="-110.186310">
        <ele>1607.344</ele>
        <time>2018-12-27T19:15:49Z</time>
      </trkpt>
      <trkpt lat="36.975960" lon="-110.187110">
        <ele>1607.383</ele>
        <time>2018-12-27T19:16:09Z</time>
      </trkpt>
      <trkpt lat="36.975480" lon="-110.187480">
        <ele>1606.839</ele>
        <time>2018-12-27T19:16:29Z</time>
      </trkpt>
      <trkpt lat="36.974750" lon="-110.188030">
        <ele>1606.001</ele>
        <time>2018-12-27T19:16:49Z</time>
      </trkpt>
      <trkpt lat="36.974590" lon="-110.188150">
        <ele>1605.721</ele>
        <time>2018-12-27T19:17:09Z</time>
      </trkpt>
      <trkpt lat="36.974510" lon="-110.188210">
        <ele>1605.608</ele>
        <time>2018-12-27T19:17:29Z</time>
      </trkpt>
      <trkpt lat="36.974200" lon="-110.188440">
        <ele>1605.326</ele>
        <time>2018-12-27T19:17:49Z</time>
      </trkpt>
      <trkpt lat="36.973660" lon="-110.188860">
        <ele>1604.044</ele>
        <time>2018-12-27T19:18:09Z</time>
      </trkpt>
      <trkpt lat="36.973620" lon="-110.188890">
        <ele>1603.919</ele>
        <time>2018-12-27T19:18:29Z</time>
      </trkpt>
      <trkpt lat="36.972540" lon="-110.189710">
        <ele>1598.140</ele>
        <time>2018-12-27T19:18:49Z</time>
      </trkpt>
      <trkpt lat="36.972330" lon="-110.189870">
        <ele>1598.145</ele>
        <time>2018-12-27T19:19:09Z</time>
      </trkpt>
      <trkpt lat="36.971820" lon="-110.190270">
        <ele>1597.413</ele>
        <time>2018-12-27T19:19:29Z</time>
      </trkpt>
      <trkpt lat="36.971470" lon="-110.190540">
        <ele>1596.735</ele>
        <time>2018-12-27T19:19:49Z</time>
      </trkpt>
      <trkpt lat="36.971120" lon="-110.190820">
        <ele>1596.064</ele>
        <time>2018-12-27T19:20:09Z</time>
      </trkpt>
      <trkpt lat="36.970710" lon="-110.191130">
        <ele>1595.562</ele>
        <time>2018-12-27T19:20:29Z</time>
      </trkpt>
      <trkpt lat="36.970020" lon="-110.191650">
        <ele>1593.783</ele>
        <time>2018-12-27T19:20:49Z</time>
      </trkpt>
      <trkpt lat="36.969850" lon="-110.191780">
        <ele>1593.211</ele>
        <time>2018-12-27T19:21:09Z</time>
      </trkpt>
      <trkpt lat="36.969460" lon="-110.192080">
        <ele>1592.008</ele>
        <time>2018-12-27T19:21:29Z</time>
      </trkpt>
      <trkpt lat="36.969070" lon="-110.192380">
        <ele>1592.059</ele>
        <time>2018-12-27T19:21:49Z</time>
      </trkpt>
      <trkpt lat="36.967940" lon="-110.193250">
        <ele>1591.777</ele>
        <time>2018-12-27T19:22:09Z</time>
      </trkpt>
      <trkpt lat="36.967610" lon="-110.193500">
        <ele>1591.612</ele>
        <time>2018-12-27T19:22:29Z</time>
      </trkpt>
      <trkpt lat="36.966910" lon="-110.194030">
        <ele>1591.083</ele>
        <time>2018-12-27T19:22:49Z</time>
      </trkpt>
      <trkpt lat="36.965530" lon="-110.195100">
        <ele>1591.148</ele>
        <time>2018-12-27T19:23:09Z</time>
      </trkpt>
      <trkpt lat="36.964770" lon="-110.195680">
        <ele>1591.266</ele>
        <time>2018-12-27T19:23:29Z</time>
      </trkpt>
      <trkpt lat="36.963380" lon="-110.196760">
        <ele>1591.878</ele>
        <time>2018-12-27T19:23:49Z</time>
      </trkpt>
      <trkpt lat="36.962560" lon="-110.197380">
        <ele>1592.077</ele>
        <time>2018-12-27T19:24:09Z</time>
      </trkpt>
      <trkpt lat="36.960840" lon="-110.198700">
        <ele>1593.617</ele>
        <time>2018-12-27T19:24:29Z</time>
      </trkpt>
      <trkpt lat="36.959970" lon="-110.199370">
        <ele>1594.387</ele>
        <time>2018-12-27T19:24:49Z</time>
      </trkpt>
      <trkpt lat="36.959660" lon="-110.199610">
        <ele>1594.415</ele>
        <time>2018-12-27T19:25:09Z</time>
      </trkpt>
      <trkpt lat="36.958800" lon="-110.200270">
        <ele>1594.908</ele>
        <time>2018-12-27T19:25:29Z</time>
      </trkpt>
      <trkpt lat="36.958310" lon="-110.200640">
        <ele>1595.554</ele>
        <time>2018-12-27T19:25:49Z</time>
      </trkpt>
      <trkpt lat="36.956840" lon="-110.201770">
        <ele>1595.972</ele>
        <time>2018-12-27T19:26:09Z</time>
      </trkpt>
      <trkpt lat="36.956310" lon="-110.202170">
        <ele>1596.247</ele>
        <time>2018-12-27T19:26:29Z</time>
      </trkpt>
      <trkpt lat="36.955970" lon="-110.202440">
        <ele>1596.558</ele>
        <time>2018-12-27T19:26:49Z</time>
      </trkpt>
      <trkpt lat="36.955520" lon="-110.202780">
        <ele>1596.623</ele>
        <time>2018-12-27T19:27:09Z</time>
      </trkpt>
      <trkpt lat="36.955170" lon="-110.203050">
        <ele>1596.861</ele>
        <time>2018-12-27T19:27:29Z</time>
      </trkpt>
      <trkpt lat="36.954790" lon="-110.203340">
        <ele>1597.113</ele>
        <time>2018-12-27T19:27:49Z</time>
      </trkpt>
      <trkpt lat="36.954400" lon="-110.203630">
        <ele>1597.282</ele>
        <time>2018-12-27T19:28:09Z</time>
      </trkpt>
      <trkpt lat="36.953810" lon="-110.204090">
        <ele>1597.487</ele>
        <time>2018-12-27T19:28:29Z</time>
      </trkpt>
      <trkpt lat="36.953050" lon="-110.204670">
        <ele>1597.942</ele>
        <time>2018-12-27T19:28:49Z</time>
      </trkpt>
      <trkpt lat="36.952100" lon="-110.205390">
        <ele>1598.126</ele>
        <time>2018-12-27T19:29:09Z</time>
      </trkpt>
      <trkpt lat="36.951470" lon="-110.205880">
        <ele>1598.108</ele>
        <time>2018-12-27T19:29:29Z</time>
      </trkpt>
      <trkpt lat="36.950620" lon="-110.206540">
        <ele>1599.031</ele>
        <time>2018-12-27T19:29:49Z</time>
      </trkpt>
      <trkpt lat="36.947800" lon="-110.208700">
        <ele>1600.329</ele>
        <time>2018-12-27T19:30:09Z</time>
      </trkpt>
      <trkpt lat="36.946500" lon="-110.209710">
        <ele>1602.434</ele>
        <time>2018-12-27T19:30:29Z</time>
      </trkpt>
      <trkpt lat="36.945830" lon="-110.210210">
        <ele>1602.915</ele>
        <time>2018-12-27T19:30:49Z</time>
      </trkpt>
      <trkpt lat="36.944150" lon="-110.211470">
        <ele>1604.150</ele>
        <time>2018-12-27T19:31:09Z</time>
      </trkpt>
      <trkpt lat="36.943990" lon="-110.211590">
        <ele>1604.648</ele>
        <time>2018-12-27T19:31:29Z</time>
      </trkpt>
      <trkpt lat="36.943860" lon="-110.211690">
        <ele>1605.960</ele>
        <time>2018-12-27T19:31:49Z</time>
      </trkpt>
      <trkpt lat="36.943720" lon="-110.211810">
        <ele>1607.739</ele>
        <time>2018-12-27T19:32:09Z</time>
      </trkpt>
      <trkpt lat="36.943310" lon="-110.212130">
        <ele>1610.472</ele>
        <time>2018-12-27T19:32:29Z</time>
      </trkpt>
      <trkpt lat="36.943020" lon="-110.212340">
        <ele>1610.613</ele>
        <time>2018-12-27T19:32:49Z</time>
      </trkpt>
      <trkpt lat="36.942840" lon="-110.212490">
        <ele>1612.714</ele>
        <time>2018-12-27T19:33:09Z</time>
      </trkpt>
      <trkpt lat="36.942740" lon="-110.212570">
        <ele>1614.408</ele>
        <time>2018-12-27T19:33:29Z</time>
      </trkpt>
      <trkpt lat="36.942680" lon="-110.212620">
        <ele>1615.110</ele>
        <time>2018-12-27T19:33:49Z</time>
      </trkpt>
      <trkpt lat="36.942600" lon="-110.212700">
        <ele>1615.958</ele>
        <time>2018-12-27T19:34:09Z</time>
      </trkpt>
      <trkpt lat="36.942430" lon="-110.212830">
        <ele>1617.243</ele>
        <time>2018-12-27T19:34:29Z</time>
      </trkpt>
      <trkpt lat="36.942200" lon="-110.213000">
        <ele>1617.554</ele>
        <time>2018-12-27T19:34:49Z</time>
      </trkpt>
      <trkpt lat="36.942020" lon="-110.213140">
        <ele>1617.819</ele>
        <time>2018-12-27T19:35:09Z</time>
      </trkpt>
      <trkpt lat="36.941470" lon="-110.213550">
        <ele>1617.787</ele>
        <time>2018-12-27T19:35:29Z</time>
      </trkpt>
      <trkpt lat="36.941300" lon="-110.213670">
        <ele>1617.769</ele>
        <time>2018-12-27T19:35:49Z</time>
      </trkpt>
      <trkpt lat="36.941070" lon="-110.213840">
        <ele>1617.428</ele>
        <time>2018-12-27T19:36:09Z</time>
      </trkpt>
      <trkpt lat="36.940630" lon="-110.214150">
        <ele>1616.662</ele>
        <time>2018-12-27T19:36:29Z</time>
      </trkpt>
      <trkpt lat="36.940040" lon="-110.214560">
        <ele>1615.183</ele>
        <time>2018-12-27T19:36:49Z</time>
      </trkpt>
      <trkpt lat="36.938560" lon="-110.215610">
        <ele>1610.611</ele>
        <time>2018-12-27T19:37:09Z</time>
      </trkpt>
      <trkpt lat="36.938080" lon="-110.215950">
        <ele>1609.808</ele>
        <time>2018-12-27T19:37:29Z</time>
      </trkpt>
      <trkpt lat="36.938000" lon="-110.216010">
        <ele>1609.839</ele>
        <time>2018-12-27T19:37:49Z</time>
      </trkpt>
      <trkpt lat="36.936290" lon="-110.217210">
        <ele>1608.847</ele>
        <time>2018-12-27T19:38:09Z</time>
      </trkpt>
      <trkpt lat="36.934830" lon="-110.218240">
        <ele>1608.962</ele>
        <time>2018-12-27T19:38:29Z</time>
      </trkpt>
      <trkpt lat="36.932330" lon="-110.220020">
        <ele>1610.273</ele>
        <time>2018-12-27T19:38:49Z</time>
      </trkpt>
      <trkpt lat="36.931660" lon="-110.220480">
        <ele>1610.298</ele>
        <time>2018-12-27T19:39:09Z</time>
      </trkpt>
      <trkpt lat="36.931380" lon="-110.220680">
        <ele>1610.146</ele>
        <time>2018-12-27T19:39:29Z</time>
      </trkpt>
      <trkpt lat="36.931050" lon="-110.220910">
        <ele>1609.988</ele>
        <time>2018-12-27T19:39:49Z</time>
      </trkpt>
      <trkpt lat="36.929860" lon="-110.221760">
        <ele>1615.117</ele>
        <time>2018-12-27T19:40:09Z</time>
      </trkpt>
      <trkpt lat="36.928930" lon="-110.222410">
        <ele>1616.747</ele>
        <time>2018-12-27T19:40:29Z</time>
      </trkpt>
      <trkpt lat="36.928500" lon="-110.222720">
        <ele>1618.129</ele>
        <time>2018-12-27T19:40:49Z</time>
      </trkpt>
      <trkpt lat="36.928040" lon="-110.223020">
        <ele>1618.021</ele>
        <time>2018-12-27T19:41:09Z</time>
      </trkpt>
      <trkpt lat="36.927630" lon="-110.223290">
        <ele>1617.808</ele>
        <time>2018-12-27T19:41:29Z</time>
      </trkpt>
      <trkpt lat="36.926190" lon="-110.224200">
        <ele>1619.137</ele>
        <time>2018-12-27T19:41:49Z</time>
      </trkpt>
      <trkpt lat="36.925100" lon="-110.224880">
        <ele>1618.375</ele>
        <time>2018-12-27T19:42:09Z</time>
      </trkpt>
      <trkpt lat="36.918610" lon="-110.229010">
        <ele>1615.930</ele>
        <time>2018-12-27T19:42:29Z</time>
      </trkpt>
      <trkpt lat="36.908550" lon="-110.235400">
        <ele>1612.751</ele>
        <time>2018-12-27T19:42:49Z</time>
      </trkpt>
      <trkpt lat="36.908350" lon="-110.235530">
        <ele>1612.276</ele>
        <time>2018-12-27T19:43:09Z</time>
      </trkpt>
      <trkpt lat="36.907020" lon="-110.236380">
        <ele>1611.724</ele>
        <time>2018-12-27T19:43:29Z</time>
      </trkpt>
      <trkpt lat="36.906130" lon="-110.236950">
        <ele>1611.686</ele>
        <time>2018-12-27T19:43:49Z</time>
      </trkpt>
      <trkpt lat="36.905160" lon="-110.237570">
        <ele>1610.995</ele>
        <time>2018-12-27T19:44:09Z</time>
      </trkpt>
      <trkpt lat="36.903820" lon="-110.238420">
        <ele>1609.852</ele>
        <time>2018-12-27T19:44:29Z</time>
      </trkpt>
      <trkpt lat="36.902620" lon="-110.239190">
        <ele>1609.853</ele>
        <time>2018-12-27T19:44:49Z</time>
      </trkpt>
      <trkpt lat="36.902290" lon="-110.239400">
        <ele>1609.608</ele>
        <time>2018-12-27T19:45:09Z</time>
      </trkpt>
      <trkpt lat="36.901930" lon="-110.239620">
        <ele>1609.308</ele>
        <time>2018-12-27T19:45:29Z</time>
      </trkpt>
      <trkpt lat="36.900970" lon="-110.240230">
        <ele>1609.948</ele>
        <time>2018-12-27T19:45:49Z</time>
      </trkpt>
      <trkpt lat="36.899470" lon="-110.241190">
        <ele>1610.986</ele>
        <time>2018-12-27T19:46:09Z</time>
      </trkpt>
      <trkpt lat="36.896860" lon="-110.242840">
        <ele>1610.881</ele>
        <time>2018-12-27T19:46:29Z</time>
      </trkpt>
      <trkpt lat="36.895050" lon="-110.243990">
        <ele>1613.212</ele>
        <time>2018-12-27T19:46:49Z</time>
      </trkpt>
      <trkpt lat="36.893840" lon="-110.244760">
        <ele>1614.967</ele>
        <time>2018-12-27T19:47:09Z</time>
      </trkpt>
      <trkpt lat="36.890480" lon="-110.246880">
        <ele>1615.775</ele>
        <time>2018-12-27T19:47:29Z</time>
      </trkpt>
      <trkpt lat="36.888760" lon="-110.248020">
        <ele>1614.787</ele>
        <time>2018-12-27T19:47:49Z</time>
      </trkpt>
      <trkpt lat="36.888290" lon="-110.248340">
        <ele>1615.126</ele>
        <time>2018-12-27T19:48:09Z</time>
      </trkpt>
      <trkpt lat="36.886240" lon="-110.249700">
        <ele>1614.614</ele>
        <time>2018-12-27T19:48:29Z</time>
      </trkpt>
      <trkpt lat="36.885330" lon="-110.250300">
        <ele>1615.454</ele>
        <time>2018-12-27T19:48:49Z</time>
      </trkpt>
      <trkpt lat="36.883610" lon="-110.251450">
        <ele>1616.909</ele>
        <time>2018-12-27T19:49:09Z</time>
      </trkpt>
      <trkpt lat="36.882970" lon="-110.251900">
        <ele>1618.508</ele>
        <time>2018-12-27T19:49:29Z</time>
      </trkpt>
      <trkpt lat="36.882610" lon="-110.252140">
        <ele>1618.264</ele>
        <time>2018-12-27T19:49:49Z</time>
      </trkpt>
      <trkpt lat="36.881850" lon="-110.252630">
        <ele>1618.252</ele>
        <time>2018-12-27T19:50:09Z</time>
      </trkpt>
      <trkpt lat="36.879570" lon="-110.254150">
        <ele>1615.537</ele>
        <time>2018-12-27T19:50:29Z</time>
      </trkpt>
      <trkpt lat="36.878100" lon="-110.255130">
        <ele>1613.198</ele>
        <time>2018-12-27T19:50:49Z</time>
      </trkpt>
      <trkpt lat="36.877830" lon="-110.255310">
        <ele>1612.773</ele>
        <time>2018-12-27T19:51:09Z</time>
      </trkpt>
      <trkpt lat="36.876850" lon="-110.255980">
        <ele>1614.421</ele>
        <time>2018-12-27T19:51:29Z</time>
      </trkpt>
      <trkpt lat="36.875390" lon="-110.256930">
        <ele>1613.693</ele>
        <time>2018-12-27T19:51:49Z</time>
      </trkpt>
      <trkpt lat="36.873350" lon="-110.258280">
        <ele>1613.752</ele>
        <time>2018-12-27T19:52:09Z</time>
      </trkpt>
      <trkpt lat="36.872610" lon="-110.258770">
        <ele>1613.311</ele>
        <time>2018-12-27T19:52:29Z</time>
      </trkpt>
      <trkpt lat="36.872320" lon="-110.258960">
        <ele>1613.321</ele>
        <time>2018-12-27T19:52:49Z</time>
      </trkpt>
      <trkpt lat="36.872080" lon="-110.259110">
        <ele>1613.303</ele>
        <time>2018-12-27T19:53:09Z</time>
      </trkpt>
      <trkpt lat="36.871510" lon="-110.259490">
        <ele>1612.908</ele>
        <time>2018-12-27T19:53:29Z</time>
      </trkpt>
      <trkpt lat="36.870590" lon="-110.260100">
        <ele>1611.764</ele>
        <time>2018-12-27T19:53:49Z</time>
      </trkpt>
      <trkpt lat="36.869250" lon="-110.260990">
        <ele>1611.022</ele>
        <time>2018-12-27T19:54:09Z</time>
      </trkpt>
      <trkpt lat="36.866540" lon="-110.262800">
        <ele>1617.287</ele>
        <time>2018-12-27T19:54:29Z</time>
      </trkpt>
      <trkpt lat="36.860100" lon="-110.267030">
        <ele>1621.688</ele>
        <time>2018-12-27T19:54:49Z</time>
      </trkpt>
      <trkpt lat="36.859680" lon="-110.267320">
        <ele>1621.893</ele>
        <time>2018-12-27T19:55:09Z</time>
      </trkpt>
      <trkpt lat="36.858890" lon="-110.267820">
        <ele>1623.031</ele>
        <time>2018-12-27T19:55:29Z</time>
      </trkpt>
      <trkpt lat="36.858010" lon="-110.268390">
        <ele>1626.453</ele>
        <time>2018-12-27T19:55:49Z</time>
      </trkpt>
      <trkpt lat="36.855780" lon="-110.269890">
        <ele>1636.012</ele>
        <time>2018-12-27T19:56:09Z</time>
      </trkpt>
      <trkpt lat="36.854820" lon="-110.270490">
        <ele>1639.975</ele>
        <time>2018-12-27T19:56:29Z</time>
      </trkpt>
      <trkpt lat="36.854620" lon="-110.270580">
        <ele>1641.128</ele>
        <time>2018-12-27T19:56:49Z</time>
      </trkpt>
      <trkpt lat="36.854260" lon="-110.270720">
        <ele>1643.920</ele>
        <time>2018-12-27T19:57:09Z</time>
      </trkpt>
      <trkpt lat="36.853850" lon="-110.270840">
        <ele>1646.608</ele>
        <time>2018-12-27T19:57:29Z</time>
      </trkpt>
      <trkpt lat="36.853620" lon="-110.270890">
        <ele>1647.240</ele>
        <time>2018-12-27T19:57:49Z</time>
      </trkpt>
      <trkpt lat="36.853450" lon="-110.270930">
        <ele>1647.468</ele>
        <time>2018-12-27T19:58:09Z</time>
      </trkpt>
      <trkpt lat="36.853270" lon="-110.270940">
        <ele>1647.613</ele>
        <time>2018-12-27T19:58:29Z</time>
      </trkpt>
      <trkpt lat="36.853060" lon="-110.270950">
        <ele>1647.834</ele>
        <time>2018-12-27T19:58:49Z</time>
      </trkpt>
      <trkpt lat="36.852760" lon="-110.270950">
        <ele>1648.219</ele>
        <time>2018-12-27T19:59:09Z</time>
      </trkpt>
      <trkpt lat="36.851910" lon="-110.270920">
        <ele>1649.967</ele>
        <time>2018-12-27T19:59:29Z</time>
      </trkpt>
      <trkpt lat="36.850760" lon="-110.270880">
        <ele>1653.239</ele>
        <time>2018-12-27T19:59:49Z</time>
      </trkpt>
      <trkpt lat="36.849200" lon="-110.270820">
        <ele>1657.568</ele>
        <time>2018-12-27T20:00:09Z</time>
      </trkpt>
      <trkpt lat="36.848880" lon="-110.270780">
        <ele>1658.315</ele>
        <time>2018-12-27T20:00:29Z</time>
      </trkpt>
      <trkpt lat="36.848600" lon="-110.270730">
        <ele>1658.865</ele>
        <time>2018-12-27T20:00:49Z</time>
      </trkpt>
      <trkpt lat="36.848420" lon="-110.270670">
        <ele>1659.011</ele>
        <time>2018-12-27T20:01:09Z</time>
      </trkpt>
      <trkpt lat="36.848220" lon="-110.270610">
        <ele>1659.508</ele>
        <time>2018-12-27T20:01:29Z</time>
      </trkpt>
      <trkpt lat="36.848000" lon="-110.270510">
        <ele>1660.024</ele>
        <time>2018-12-27T20:01:49Z</time>
      </trkpt>
      <trkpt lat="36.847680" lon="-110.270310">
        <ele>1661.382</ele>
        <time>2018-12-27T20:02:09Z</time>
      </trkpt>
      <trkpt lat="36.847480" lon="-110.270150">
        <ele>1662.467</ele>
        <time>2018-12-27T20:02:29Z</time>
      </trkpt>
      <trkpt lat="36.846810" lon="-110.269630">
        <ele>1665.918</ele>
        <time>2018-12-27T20:02:49Z</time>
      </trkpt>
      <trkpt lat="36.845720" lon="-110.268760">
        <ele>1671.283</ele>
        <time>2018-12-27T20:03:09Z</time>
      </trkpt>
      <trkpt lat="36.844780" lon="-110.268050">
        <ele>1673.121</ele>
        <time>2018-12-27T20:03:29Z</time>
      </trkpt>
      <trkpt lat="36.844650" lon="-110.267930">
        <ele>1673.093</ele>
        <time>2018-12-27T20:03:49Z</time>
      </trkpt>
      <trkpt lat="36.844490" lon="-110.267790">
        <ele>1672.912</ele>
        <time>2018-12-27T20:04:09Z</time>
      </trkpt>
      <trkpt lat="36.843750" lon="-110.267180">
        <ele>1672.029</ele>
        <time>2018-12-27T20:04:29Z</time>
      </trkpt>
      <trkpt lat="36.841990" lon="-110.265840">
        <ele>1672.700</ele>
        <time>2018-12-27T20:04:49Z</time>
      </trkpt>
      <trkpt lat="36.841280" lon="-110.265270">
        <ele>1671.320</ele>
        <time>2018-12-27T20:05:09Z</time>
      </trkpt>
      <trkpt lat="36.841170" lon="-110.265180">
        <ele>1671.308</ele>
        <time>2018-12-27T20:05:29Z</time>
      </trkpt>
      <trkpt lat="36.840810" lon="-110.264860">
        <ele>1671.385</ele>
        <time>2018-12-27T20:05:49Z</time>
      </trkpt>
      <trkpt lat="36.840540" lon="-110.264590">
        <ele>1672.133</ele>
        <time>2018-12-27T20:06:09Z</time>
      </trkpt>
      <trkpt lat="36.840310" lon="-110.264280">
        <ele>1672.798</ele>
        <time>2018-12-27T20:06:29Z</time>
      </trkpt>
      <trkpt lat="36.840080" lon="-110.263830">
        <ele>1673.319</ele>
        <time>2018-12-27T20:06:49Z</time>
      </trkpt>
      <trkpt lat="36.839910" lon="-110.263430">
        <ele>1674.184</ele>
        <time>2018-12-27T20:07:09Z</time>
      </trkpt>
      <trkpt lat="36.839760" lon="-110.262890">
        <ele>1675.222</ele>
        <time>2018-12-27T20:07:29Z</time>
      </trkpt>
      <trkpt lat="36.839650" lon="-110.262250">
        <ele>1675.774</ele>
        <time>2018-12-27T20:07:49Z</time>
      </trkpt>
      <trkpt lat="36.839520" lon="-110.261310">
        <ele>1675.443</ele>
        <time>2018-12-27T20:08:09Z</time>
      </trkpt>
      <trkpt lat="36.839400" lon="-110.260470">
        <ele>1674.562</ele>
        <time>2018-12-27T20:08:29Z</time>
      </trkpt>
      <trkpt lat="36.839230" lon="-110.259450">
        <ele>1674.083</ele>
        <time>2018-12-27T20:08:49Z</time>
      </trkpt>
      <trkpt lat="36.839070" lon="-110.258750">
        <ele>1674.311</ele>
        <time>2018-12-27T20:09:09Z</time>
      </trkpt>
      <trkpt lat="36.838930" lon="-110.258270">
        <ele>1674.508</ele>
        <time>2018-12-27T20:09:29Z</time>
      </trkpt>
      <trkpt lat="36.838710" lon="-110.257690">
        <ele>1676.199</ele>
        <time>2018-12-27T20:09:49Z</time>
      </trkpt>
      <trkpt lat="36.838550" lon="-110.257290">
        <ele>1677.467</ele>
        <time>2018-12-27T20:10:09Z</time>
      </trkpt>
      <trkpt lat="36.838500" lon="-110.257170">
        <ele>1677.812</ele>
        <time>2018-12-27T20:10:29Z</time>
      </trkpt>
      <trkpt lat="36.838160" lon="-110.256490">
        <ele>1679.673</ele>
        <time>2018-12-27T20:10:49Z</time>
      </trkpt>
      <trkpt lat="36.837790" lon="-110.255750">
        <ele>1680.528</ele>
        <time>2018-12-27T20:11:09Z</time>
      </trkpt>
      <trkpt lat="36.837390" lon="-110.254990">
        <ele>1680.276</ele>
        <time>2018-12-27T20:11:29Z</time>
      </trkpt>
      <trkpt lat="36.835940" lon="-110.252130">
        <ele>1683.988</ele>
        <time>2018-12-27T20:11:49Z</time>
      </trkpt>
      <trkpt lat="36.835170" lon="-110.250650">
        <ele>1681.687</ele>
        <time>2018-12-27T20:12:09Z</time>
      </trkpt>
      <trkpt lat="36.834880" lon="-110.250070">
        <ele>1681.426</ele>
        <time>2018-12-27T20:12:29Z</time>
      </trkpt>
      <trkpt lat="36.834570" lon="-110.249500">
        <ele>1682.647</ele>
        <time>2018-12-27T20:12:49Z</time>
      </trkpt>
      <trkpt lat="36.834110" lon="-110.248590">
        <ele>1683.811</ele>
        <time>2018-12-27T20:13:09Z</time>
      </trkpt>
      <trkpt lat="36.834060" lon="-110.248500">
        <ele>1683.708</ele>
        <time>2018-12-27T20:13:29Z</time>
      </trkpt>
      <trkpt lat="36.833720" lon="-110.247880">
        <ele>1683.545</ele>
        <time>2018-12-27T20:13:49Z</time>
      </trkpt>
      <trkpt lat="36.833280" lon="-110.247190">
        <ele>1683.663</ele>
        <time>2018-12-27T20:14:09Z</time>
      </trkpt>
      <trkpt lat="36.832870" lon="-110.246580">
        <ele>1683.548</ele>
        <time>2018-12-27T20:14:29Z</time>
      </trkpt>
      <trkpt lat="36.832470" lon="-110.246100">
        <ele>1683.649</ele>
        <time>2018-12-27T20:14:49Z</time>
      </trkpt>
      <trkpt lat="36.831990" lon="-110.245530">
        <ele>1683.684</ele>
        <time>2018-12-27T20:15:09Z</time>
      </trkpt>
      <trkpt lat="36.831290" lon="-110.244700">
        <ele>1683.612</ele>
        <time>2018-12-27T20:15:29Z</time>
      </trkpt>
      <trkpt lat="36.830800" lon="-110.244100">
        <ele>1683.524</ele>
        <time>2018-12-27T20:15:49Z</time>
      </trkpt>
      <trkpt lat="36.830110" lon="-110.243290">
        <ele>1683.793</ele>
        <time>2018-12-27T20:16:09Z</time>
      </trkpt>
      <trkpt lat="36.829840" lon="-110.242960">
        <ele>1684.471</ele>
        <time>2018-12-27T20:16:29Z</time>
      </trkpt>
      <trkpt lat="36.829660" lon="-110.242750">
        <ele>1686.441</ele>
        <time>2018-12-27T20:16:49Z</time>
      </trkpt>
      <trkpt lat="36.827830" lon="-110.240530">
        <ele>1690.215</ele>
        <time>2018-12-27T20:17:09Z</time>
      </trkpt>
      <trkpt lat="36.827670" lon="-110.240340">
        <ele>1690.208</ele>
        <time>2018-12-27T20:17:29Z</time>
      </trkpt>
      <trkpt lat="36.826990" lon="-110.239540">
        <ele>1691.650</ele>
        <time>2018-12-27T20:17:49Z</time>
      </trkpt>
      <trkpt lat="36.826620" lon="-110.239130">
        <ele>1692.428</ele>
        <time>2018-12-27T20:18:09Z</time>
      </trkpt>
      <trkpt lat="36.826360" lon="-110.238880">
        <ele>1693.883</ele>
        <time>2018-12-27T20:18:29Z</time>
      </trkpt>
      <trkpt lat="36.826140" lon="-110.238690">
        <ele>1695.044</ele>
        <time>2018-12-27T20:18:49Z</time>
      </trkpt>
      <trkpt lat="36.825930" lon="-110.238520">
        <ele>1696.249</ele>
        <time>2018-12-27T20:19:09Z</time>
      </trkpt>
      <trkpt lat="36.825700" lon="-110.238350">
        <ele>1696.677</ele>
        <time>2018-12-27T20:19:29Z</time>
      </trkpt>
      <trkpt lat="36.825590" lon="-110.238260">
        <ele>1696.929</ele>
        <time>2018-12-27T20:19:49Z</time>
      </trkpt>
      <trkpt lat="36.825390" lon="-110.238120">
        <ele>1697.588</ele>
        <time>2018-12-27T20:20:09Z</time>
      </trkpt>
      <trkpt lat="36.825180" lon="-110.237990">
        <ele>1697.829</ele>
        <time>2018-12-27T20:20:29Z</time>
      </trkpt>
      <trkpt lat="36.825000" lon="-110.237870">
        <ele>1698.600</ele>
        <time>2018-12-27T20:20:49Z</time>
      </trkpt>
      <trkpt lat="36.824800" lon="-110.237770">
        <ele>1699.120</ele>
        <time>2018-12-27T20:21:09Z</time>
      </trkpt>
      <trkpt lat="36.824490" lon="-110.237600">
        <ele>1699.408</ele>
        <time>2018-12-27T20:21:29Z</time>
      </trkpt>
      <trkpt lat="36.823840" lon="-110.237260">
        <ele>1698.675</ele>
        <time>2018-12-27T20:21:49Z</time>
      </trkpt>
      <trkpt lat="36.823050" lon="-110.236850">
        <ele>1699.113</ele>
        <time>2018-12-27T20:22:09Z</time>
      </trkpt>
      <trkpt lat="36.822220" lon="-110.236400">
        <ele>1700.928</ele>
        <time>2018-12-27T20:22:29Z</time>
      </trkpt>
      <trkpt lat="36.821900" lon="-110.236240">
        <ele>1700.749</ele>
        <time>2018-12-27T20:22:49Z</time>
      </trkpt>
      <trkpt lat="36.821420" lon="-110.235990">
        <ele>1700.924</ele>
        <time>2018-12-27T20:23:09Z</time>
      </trkpt>
      <trkpt lat="36.821200" lon="-110.235860">
        <ele>1701.512</ele>
        <time>2018-12-27T20:23:29Z</time>
      </trkpt>
      <trkpt lat="36.821000" lon="-110.235760">
        <ele>1702.114</ele>
        <time>2018-12-27T20:23:49Z</time>
      </trkpt>
      <trkpt lat="36.820210" lon="-110.235340">
        <ele>1704.293</ele>
        <time>2018-12-27T20:24:09Z</time>
      </trkpt>
      <trkpt lat="36.819650" lon="-110.235050">
        <ele>1705.235</ele>
        <time>2018-12-27T20:24:29Z</time>
      </trkpt>
      <trkpt lat="36.819350" lon="-110.234910">
        <ele>1706.486</ele>
        <time>2018-12-27T20:24:49Z</time>
      </trkpt>
      <trkpt lat="36.819020" lon="-110.234770">
        <ele>1706.514</ele>
        <time>2018-12-27T20:25:09Z</time>
      </trkpt>
      <trkpt lat="36.818600" lon="-110.234630">
        <ele>1707.408</ele>
        <time>2018-12-27T20:25:29Z</time>
      </trkpt>
      <trkpt lat="36.818390" lon="-110.234560">
        <ele>1707.496</ele>
        <time>2018-12-27T20:25:49Z</time>
      </trkpt>
      <trkpt lat="36.818170" lon="-110.234510">
        <ele>1707.184</ele>
        <time>2018-12-27T20:26:09Z</time>
      </trkpt>
      <trkpt lat="36.817950" lon="-110.234460">
        <ele>1706.949</ele>
        <time>2018-12-27T20:26:29Z</time>
      </trkpt>
      <trkpt lat="36.816490" lon="-110.234250">
        <ele>1707.910</ele>
        <time>2018-12-27T20:26:49Z</time>
      </trkpt>
      <trkpt lat="36.815890" lon="-110.234180">
        <ele>1710.665</ele>
        <time>2018-12-27T20:27:09Z</time>
      </trkpt>
      <trkpt lat="36.814860" lon="-110.234040">
        <ele>1718.083</ele>
        <time>2018-12-27T20:27:29Z</time>
      </trkpt>
      <trkpt lat="36.813440" lon="-110.233860">
        <ele>1718.675</ele>
        <time>2018-12-27T20:27:49Z</time>
      </trkpt>
      <trkpt lat="36.812070" lon="-110.233680">
        <ele>1720.164</ele>
        <time>2018-12-27T20:28:09Z</time>
      </trkpt>
      <trkpt lat="36.811630" lon="-110.233620">
        <ele>1722.045</ele>
        <time>2018-12-27T20:28:29Z</time>
      </trkpt>
      <trkpt lat="36.811410" lon="-110.233580">
        <ele>1723.347</ele>
        <time>2018-12-27T20:28:49Z</time>
      </trkpt>
      <trkpt lat="36.808500" lon="-110.233210">
        <ele>1726.411</ele>
        <time>2018-12-27T20:29:09Z</time>
      </trkpt>
      <trkpt lat="36.807180" lon="-110.233040">
        <ele>1719.508</ele>
        <time>2018-12-27T20:29:29Z</time>
      </trkpt>
      <trkpt lat="36.806930" lon="-110.233000">
        <ele>1719.147</ele>
        <time>2018-12-27T20:29:49Z</time>
      </trkpt>
      <trkpt lat="36.804490" lon="-110.232670">
        <ele>1718.185</ele>
        <time>2018-12-27T20:30:09Z</time>
      </trkpt>
      <trkpt lat="36.803890" lon="-110.232600">
        <ele>1717.690</ele>
        <time>2018-12-27T20:30:29Z</time>
      </trkpt>
      <trkpt lat="36.803280" lon="-110.232530">
        <ele>1717.211</ele>
        <time>2018-12-27T20:30:49Z</time>
      </trkpt>
      <trkpt lat="36.803000" lon="-110.232500">
        <ele>1716.816</ele>
        <time>2018-12-27T20:31:09Z</time>
      </trkpt>
      <trkpt lat="36.802730" lon="-110.232460">
        <ele>1716.414</ele>
        <time>2018-12-27T20:31:29Z</time>
      </trkpt>
      <trkpt lat="36.801360" lon="-110.232270">
        <ele>1714.826</ele>
        <time>2018-12-27T20:31:49Z</time>
      </trkpt>
      <trkpt lat="36.794310" lon="-110.231340">
        <ele>1716.085</ele>
        <time>2018-12-27T20:32:09Z</time>
      </trkpt>
      <trkpt lat="36.793680" lon="-110.231260">
        <ele>1713.792</ele>
        <time>2018-12-27T20:32:29Z</time>
      </trkpt>
      <trkpt lat="36.793470" lon="-110.231240">
        <ele>1714.873</ele>
        <time>2018-12-27T20:32:49Z</time>
      </trkpt>
      <trkpt lat="36.786430" lon="-110.230340">
        <ele>1708.020</ele>
        <time>2018-12-27T20:33:09Z</time>
      </trkpt>
      <trkpt lat="36.786140" lon="-110.230300">
        <ele>1708.008</ele>
        <time>2018-12-27T20:33:29Z</time>
      </trkpt>
      <trkpt lat="36.782440" lon="-110.229830">
        <ele>1706.332</ele>
        <time>2018-12-27T20:33:49Z</time>
      </trkpt>
      <trkpt lat="36.781950" lon="-110.229770">
        <ele>1706.140</ele>
        <time>2018-12-27T20:34:09Z</time>
      </trkpt>
      <trkpt lat="36.780080" lon="-110.229550">
        <ele>1705.315</ele>
        <time>2018-12-27T20:34:29Z</time>
      </trkpt>
      <trkpt lat="36.779030" lon="-110.229390">
        <ele>1704.476</ele>
        <time>2018-12-27T20:34:49Z</time>
      </trkpt>
      <trkpt lat="36.777770" lon="-110.229230">
        <ele>1702.811</ele>
        <time>2018-12-27T20:35:09Z</time>
      </trkpt>
      <trkpt lat="36.776630" lon="-110.229060">
        <ele>1701.559</ele>
        <time>2018-12-27T20:35:29Z</time>
      </trkpt>
      <trkpt lat="36.774490" lon="-110.228780">
        <ele>1699.771</ele>
        <time>2018-12-27T20:35:49Z</time>
      </trkpt>
      <trkpt lat="36.769730" lon="-110.228190">
        <ele>1699.030</ele>
        <time>2018-12-27T20:36:09Z</time>
      </trkpt>
      <trkpt lat="36.765240" lon="-110.227590">
        <ele>1707.053</ele>
        <time>2018-12-27T20:36:29Z</time>
      </trkpt>
      <trkpt lat="36.764430" lon="-110.227500">
        <ele>1708.204</ele>
        <time>2018-12-27T20:36:49Z</time>
      </trkpt>
      <trkpt lat="36.763000" lon="-110.227300">
        <ele>1710.014</ele>
        <time>2018-12-27T20:37:09Z</time>
      </trkpt>
      <trkpt lat="36.761670" lon="-110.227130">
        <ele>1712.608</ele>
        <time>2018-12-27T20:37:29Z</time>
      </trkpt>
      <trkpt lat="36.760550" lon="-110.226990">
        <ele>1713.778</ele>
        <time>2018-12-27T20:37:49Z</time>
      </trkpt>
      <trkpt lat="36.758490" lon="-110.226700">
        <ele>1721.336</ele>
        <time>2018-12-27T20:38:09Z</time>
      </trkpt>
      <trkpt lat="36.755770" lon="-110.226370">
        <ele>1732.151</ele>
        <time>2018-12-27T20:38:29Z</time>
      </trkpt>
      <trkpt lat="36.754560" lon="-110.226200">
        <ele>1727.722</ele>
        <time>2018-12-27T20:38:49Z</time>
      </trkpt>
      <trkpt lat="36.754010" lon="-110.226170">
        <ele>1726.637</ele>
        <time>2018-12-27T20:39:09Z</time>
      </trkpt>
      <trkpt lat="36.753510" lon="-110.226080">
        <ele>1725.655</ele>
        <time>2018-12-27T20:39:29Z</time>
      </trkpt>
      <trkpt lat="36.752400" lon="-110.225940">
        <ele>1720.817</ele>
        <time>2018-12-27T20:39:49Z</time>
      </trkpt>
      <trkpt lat="36.751870" lon="-110.225880">
        <ele>1718.916</ele>
        <time>2018-12-27T20:40:09Z</time>
      </trkpt>
      <trkpt lat="36.751490" lon="-110.225860">
        <ele>1717.028</ele>
        <time>2018-12-27T20:40:29Z</time>
      </trkpt>
      <trkpt lat="36.751360" lon="-110.225860">
        <ele>1716.589</ele>
        <time>2018-12-27T20:40:49Z</time>
      </trkpt>
      <trkpt lat="36.751170" lon="-110.225870">
        <ele>1715.817</ele>
        <time>2018-12-27T20:41:09Z</time>
      </trkpt>
      <trkpt lat="36.750990" lon="-110.225890">
        <ele>1715.208</ele>
        <time>2018-12-27T20:41:29Z</time>
      </trkpt>
      <trkpt lat="36.750540" lon="-110.225940">
        <ele>1714.245</ele>
        <time>2018-12-27T20:41:49Z</time>
      </trkpt>
      <trkpt lat="36.750020" lon="-110.226040">
        <ele>1714.483</ele>
        <time>2018-12-27T20:42:09Z</time>
      </trkpt>
      <trkpt lat="36.749610" lon="-110.226140">
        <ele>1716.248</ele>
        <time>2018-12-27T20:42:29Z</time>
      </trkpt>
      <trkpt lat="36.749120" lon="-110.226300">
        <ele>1715.599</ele>
        <time>2018-12-27T20:42:49Z</time>
      </trkpt>
      <trkpt lat="36.748920" lon="-110.226380">
        <ele>1714.284</ele>
        <time>2018-12-27T20:43:09Z</time>
      </trkpt>
      <trkpt lat="36.748700" lon="-110.226490">
        <ele>1713.322</ele>
        <time>2018-12-27T20:43:29Z</time>
      </trkpt>
      <trkpt lat="36.748200" lon="-110.226740">
        <ele>1712.414</ele>
        <time>2018-12-27T20:43:49Z</time>
      </trkpt>
      <trkpt lat="36.747560" lon="-110.227160">
        <ele>1712.873</ele>
        <time>2018-12-27T20:44:09Z</time>
      </trkpt>
      <trkpt lat="36.746940" lon="-110.227620">
        <ele>1710.895</ele>
        <time>2018-12-27T20:44:29Z</time>
      </trkpt>
      <trkpt lat="36.745940" lon="-110.228350">
        <ele>1710.349</ele>
        <time>2018-12-27T20:44:49Z</time>
      </trkpt>
      <trkpt lat="36.745220" lon="-110.228860">
        <ele>1707.123</ele>
        <time>2018-12-27T20:45:09Z</time>
      </trkpt>
      <trkpt lat="36.744640" lon="-110.229310">
        <ele>1706.108</ele>
        <time>2018-12-27T20:45:29Z</time>
      </trkpt>
      <trkpt lat="36.743990" lon="-110.229880">
        <ele>1705.822</ele>
        <time>2018-12-27T20:45:49Z</time>
      </trkpt>
      <trkpt lat="36.743490" lon="-110.230390">
        <ele>1704.890</ele>
        <time>2018-12-27T20:46:09Z</time>
      </trkpt>
      <trkpt lat="36.743100" lon="-110.230900">
        <ele>1704.025</ele>
        <time>2018-12-27T20:46:29Z</time>
      </trkpt>
      <trkpt lat="36.742290" lon="-110.231970">
        <ele>1705.126</ele>
        <time>2018-12-27T20:46:49Z</time>
      </trkpt>
      <trkpt lat="36.739290" lon="-110.236160">
        <ele>1703.391</ele>
        <time>2018-12-27T20:47:09Z</time>
      </trkpt>
      <trkpt lat="36.739110" lon="-110.236350">
        <ele>1703.119</ele>
        <time>2018-12-27T20:47:29Z</time>
      </trkpt>
      <trkpt lat="36.738900" lon="-110.236560">
        <ele>1702.651</ele>
        <time>2018-12-27T20:47:49Z</time>
      </trkpt>
      <trkpt lat="36.738660" lon="-110.236790">
        <ele>1702.130</ele>
        <time>2018-12-27T20:48:09Z</time>
      </trkpt>
      <trkpt lat="36.738370" lon="-110.237060">
        <ele>1701.577</ele>
        <time>2018-12-27T20:48:29Z</time>
      </trkpt>
      <trkpt lat="36.738210" lon="-110.237200">
        <ele>1701.361</ele>
        <time>2018-12-27T20:48:49Z</time>
      </trkpt>
      <trkpt lat="36.737730" lon="-110.237630">
        <ele>1686.727</ele>
        <time>2018-12-27T20:49:09Z</time>
      </trkpt>
      <trkpt lat="36.737490" lon="-110.237860">
        <ele>1678.808</ele>
        <time>2018-12-27T20:49:29Z</time>
      </trkpt>
      <trkpt lat="36.737230" lon="-110.238100">
        <ele>1684.590</ele>
        <time>2018-12-27T20:49:49Z</time>
      </trkpt>
      <trkpt lat="36.737120" lon="-110.238200">
        <ele>1691.038</ele>
        <time>2018-12-27T20:50:09Z</time>
      </trkpt>
      <trkpt lat="36.736570" lon="-110.238690">
        <ele>1700.813</ele>
        <time>2018-12-27T20:50:29Z</time>
      </trkpt>
      <trkpt lat="36.736170" lon="-110.239070">
        <ele>1701.594</ele>
        <time>2018-12-27T20:50:49Z</time>
      </trkpt>
      <trkpt lat="36.735410" lon="-110.239770">
        <ele>1703.919</ele>
        <time>2018-12-27T20:51:09Z</time>
      </trkpt>
      <trkpt lat="36.735070" lon="-110.240060">
        <ele>1705.117</ele>
        <time>2018-12-27T20:51:29Z</time>
      </trkpt>
      <trkpt lat="36.734630" lon="-110.240450">
        <ele>1706.519</ele>
        <time>2018-12-27T20:51:49Z</time>
      </trkpt>
      <trkpt lat="36.734280" lon="-110.240780">
        <ele>1707.148</ele>
        <time>2018-12-27T20:52:09Z</time>
      </trkpt>
      <trkpt lat="36.733660" lon="-110.241320">
        <ele>1708.964</ele>
        <time>2018-12-27T20:52:29Z</time>
      </trkpt>
      <trkpt lat="36.732770" lon="-110.242090">
        <ele>1711.206</ele>
        <time>2018-12-27T20:52:49Z</time>
      </trkpt>
      <trkpt lat="36.731710" lon="-110.243050">
        <ele>1711.016</ele>
        <time>2018-12-27T20:53:09Z</time>
      </trkpt>
      <trkpt lat="36.731630" lon="-110.243110">
        <ele>1710.708</ele>
        <time>2018-12-27T20:53:29Z</time>
      </trkpt>
      <trkpt lat="36.731100" lon="-110.243600">
        <ele>1710.349</ele>
        <time>2018-12-27T20:53:49Z</time>
      </trkpt>
      <trkpt lat="36.730920" lon="-110.243780">
        <ele>1710.897</ele>
        <time>2018-12-27T20:54:09Z</time>
      </trkpt>
      <trkpt lat="36.730800" lon="-110.243900">
        <ele>1710.972</ele>
        <time>2018-12-27T20:54:29Z</time>
      </trkpt>
      <trkpt lat="36.730440" lon="-110.244230">
        <ele>1711.893</ele>
        <time>2018-12-27T20:54:49Z</time>
      </trkpt>
      <trkpt lat="36.730170" lon="-110.244520">
        <ele>1712.958</ele>
        <time>2018-12-27T20:55:09Z</time>
      </trkpt>
      <trkpt lat="36.730070" lon="-110.244630">
        <ele>1713.276</ele>
        <time>2018-12-27T20:55:29Z</time>
      </trkpt>
      <trkpt lat="36.729960" lon="-110.244770">
        <ele>1713.658</ele>
        <time>2018-12-27T20:55:49Z</time>
      </trkpt>
      <trkpt lat="36.729680" lon="-110.245120">
        <ele>1713.857</ele>
        <time>2018-12-27T20:56:09Z</time>
      </trkpt>
      <trkpt lat="36.729340" lon="-110.245610">
        <ele>1713.924</ele>
        <time>2018-12-27T20:56:29Z</time>
      </trkpt>
      <trkpt lat="36.729120" lon="-110.245990">
        <ele>1714.004</ele>
        <time>2018-12-27T20:56:49Z</time>
      </trkpt>
      <trkpt lat="36.728830" lon="-110.246500">
        <ele>1714.314</ele>
        <time>2018-12-27T20:57:09Z</time>
      </trkpt>
      <trkpt lat="36.728630" lon="-110.246910">
        <ele>1714.508</ele>
        <time>2018-12-27T20:57:29Z</time>
      </trkpt>
      <trkpt lat="36.728540" lon="-110.247100">
        <ele>1714.665</ele>
        <time>2018-12-27T20:57:49Z</time>
      </trkpt>
      <trkpt lat="36.728450" lon="-110.247350">
        <ele>1714.823</ele>
        <time>2018-12-27T20:58:09Z</time>
      </trkpt>
      <trkpt lat="36.728380" lon="-110.247520">
        <ele>1715.078</ele>
        <time>2018-12-27T20:58:29Z</time>
      </trkpt>
      <trkpt lat="36.728270" lon="-110.247820">
        <ele>1715.239</ele>
        <time>2018-12-27T20:58:49Z</time>
      </trkpt>
      <trkpt lat="36.727920" lon="-110.248850">
        <ele>1715.874</ele>
        <time>2018-12-27T20:59:09Z</time>
      </trkpt>
      <trkpt lat="36.727710" lon="-110.249440">
        <ele>1716.762</ele>
        <time>2018-12-27T20:59:29Z</time>
      </trkpt>
      <trkpt lat="36.727540" lon="-110.249950">
        <ele>1717.744</ele>
        <time>2018-12-27T20:59:49Z</time>
      </trkpt>
      <trkpt lat="36.727490" lon="-110.250100">
        <ele>1718.023</ele>
        <time>2018-12-27T21:00:09Z</time>
      </trkpt>
      <trkpt lat="36.727090" lon="-110.251250">
        <ele>1720.062</ele>
        <time>2018-12-27T21:00:29Z</time>
      </trkpt>
      <trkpt lat="36.727050" lon="-110.251360">
        <ele>1720.183</ele>
        <time>2018-12-27T21:00:49Z</time>
      </trkpt>
      <trkpt lat="36.727000" lon="-110.251490">
        <ele>1720.311</ele>
        <time>2018-12-27T21:01:09Z</time>
      </trkpt>
      <trkpt lat="36.726960" lon="-110.251620">
        <ele>1720.808</ele>
        <time>2018-12-27T21:01:29Z</time>
      </trkpt>
      <trkpt lat="36.726490" lon="-110.252950">
        <ele>1725.789</ele>
        <time>2018-12-27T21:01:49Z</time>
      </trkpt>
      <trkpt lat="36.726270" lon="-110.253580">
        <ele>1726.957</ele>
        <time>2018-12-27T21:02:09Z</time>
      </trkpt>
      <trkpt lat="36.725990" lon="-110.254440">
        <ele>1730.272</ele>
        <time>2018-12-27T21:02:29Z</time>
      </trkpt>
      <trkpt lat="36.725960" lon="-110.254520">
        <ele>1730.693</ele>
        <time>2018-12-27T21:02:49Z</time>
      </trkpt>
      <trkpt lat="36.725920" lon="-110.254630">
        <ele>1731.148</ele>
        <time>2018-12-27T21:03:09Z</time>
      </trkpt>
      <trkpt lat="36.725880" lon="-110.254750">
        <ele>1731.646</ele>
        <time>2018-12-27T21:03:29Z</time>
      </trkpt>
      <trkpt lat="36.725810" lon="-110.254900">
        <ele>1732.198</ele>
        <time>2018-12-27T21:03:49Z</time>
      </trkpt>
      <trkpt lat="36.725710" lon="-110.255120">
        <ele>1732.467</ele>
        <time>2018-12-27T21:04:09Z</time>
      </trkpt>
      <trkpt lat="36.725650" lon="-110.255220">
        <ele>1732.564</ele>
        <time>2018-12-27T21:04:29Z</time>
      </trkpt>
      <trkpt lat="36.725570" lon="-110.255370">
        <ele>1732.506</ele>
        <time>2018-12-27T21:04:49Z</time>
      </trkpt>
      <trkpt lat="36.725410" lon="-110.255600">
        <ele>1732.616</ele>
        <time>2018-12-27T21:05:09Z</time>
      </trkpt>
      <trkpt lat="36.725290" lon="-110.255740">
        <ele>1732.508</ele>
        <time>2018-12-27T21:05:29Z</time>
      </trkpt>
      <trkpt lat="36.725170" lon="-110.255860">
        <ele>1732.579</ele>
        <time>2018-12-27T21:05:49Z</time>
      </trkpt>
      <trkpt lat="36.724990" lon="-110.256040">
        <ele>1732.517</ele>
        <time>2018-12-27T21:06:09Z</time>
      </trkpt>
      <trkpt lat="36.724860" lon="-110.256140">
        <ele>1732.532</ele>
        <time>2018-12-27T21:06:29Z</time>
      </trkpt>
      <trkpt lat="36.724680" lon="-110.256280">
        <ele>1732.523</ele>
        <time>2018-12-27T21:06:49Z</time>
      </trkpt>
      <trkpt lat="36.724560" lon="-110.256370">
        <ele>1732.518</ele>
        <time>2018-12-27T21:07:09Z</time>
      </trkpt>
      <trkpt lat="36.724290" lon="-110.256500">
        <ele>1732.566</ele>
        <time>2018-12-27T21:07:29Z</time>
      </trkpt>
      <trkpt lat="36.724150" lon="-110.256560">
        <ele>1732.518</ele>
        <time>2018-12-27T21:07:49Z</time>
      </trkpt>
      <trkpt lat="36.724010" lon="-110.256610">
        <ele>1732.547</ele>
        <time>2018-12-27T21:08:09Z</time>
      </trkpt>
      <trkpt lat="36.723870" lon="-110.256650">
        <ele>1732.587</ele>
        <time>2018-12-27T21:08:29Z</time>
      </trkpt>
      <trkpt lat="36.723720" lon="-110.256680">
        <ele>1732.542</ele>
        <time>2018-12-27T21:08:49Z</time>
      </trkpt>
      <trkpt lat="36.723560" lon="-110.256700">
        <ele>1732.526</ele>
        <time>2018-12-27T21:09:09Z</time>
      </trkpt>
      <trkpt lat="36.723400" lon="-110.256710">
        <ele>1732.608</ele>
        <time>2018-12-27T21:09:29Z</time>
      </trkpt>
      <trkpt lat="36.723330" lon="-110.256710">
        <ele>1732.691</ele>
        <time>2018-12-27T21:09:49Z</time>
      </trkpt>
      <trkpt lat="36.723210" lon="-110.256710">
        <ele>1732.699</ele>
        <time>2018-12-27T21:10:09Z</time>
      </trkpt>
      <trkpt lat="36.723010" lon="-110.256700">
        <ele>1732.274</ele>
        <time>2018-12-27T21:10:29Z</time>
      </trkpt>
      <trkpt lat="36.722830" lon="-110.256670">
        <ele>1731.825</ele>
        <time>2018-12-27T21:10:49Z</time>
      </trkpt>
      <trkpt lat="36.722700" lon="-110.256640">
        <ele>1731.610</ele>
        <time>2018-12-27T21:11:09Z</time>
      </trkpt>
      <trkpt lat="36.722590" lon="-110.256600">
        <ele>1731.488</ele>
        <time>2018-12-27T21:11:29Z</time>
      </trkpt>
      <trkpt lat="36.722450" lon="-110.256550">
        <ele>1731.310</ele>
        <time>2018-12-27T21:11:49Z</time>
      </trkpt>
      <trkpt lat="36.722240" lon="-110.256450">
        <ele>1731.089</ele>
        <time>2018-12-27T21:12:09Z</time>
      </trkpt>
      <trkpt lat="36.721620" lon="-110.256080">
        <ele>1731.148</ele>
        <time>2018-12-27T21:12:29Z</time>
      </trkpt>
      <trkpt lat="36.721160" lon="-110.255770">
        <ele>1731.961</ele>
        <time>2018-12-27T21:12:49Z</time>
      </trkpt>
      <trkpt lat="36.720990" lon="-110.255670">
        <ele>1732.217</ele>
        <time>2018-12-27T21:13:09Z</time>
      </trkpt>
      <trkpt lat="36.720030" lon="-110.255050">
        <ele>1732.308</ele>
        <time>2018-12-27T21:13:29Z</time>
      </trkpt>
      <trkpt lat="36.718930" lon="-110.254360">
        <ele>1732.777</ele>
        <time>2018-12-27T21:13:49Z</time>
      </trkpt>
      <trkpt lat="36.718100" lon="-110.253830">
        <ele>1732.985</ele>
        <time>2018-12-27T21:14:09Z</time>
      </trkpt>
      <trkpt lat="36.717460" lon="-110.253420">
        <ele>1733.580</ele>
        <time>2018-12-27T21:14:29Z</time>
      </trkpt>
      <trkpt lat="36.716980" lon="-110.253090">
        <ele>1733.971</ele>
        <time>2018-12-27T21:14:49Z</time>
      </trkpt>
      <trkpt lat="36.716730" lon="-110.252920">
        <ele>1734.256</ele>
        <time>2018-12-27T21:15:09Z</time>
      </trkpt>
      <trkpt lat="36.715300" lon="-110.252040">
        <ele>1736.174</ele>
        <time>2018-12-27T21:15:29Z</time>
      </trkpt>
      <trkpt lat="36.715050" lon="-110.251880">
        <ele>1736.476</ele>
        <time>2018-12-27T21:15:49Z</time>
      </trkpt>
      <trkpt lat="36.713640" lon="-110.250980">
        <ele>1738.055</ele>
        <time>2018-12-27T21:16:09Z</time>
      </trkpt>
      <trkpt lat="36.713140" lon="-110.250680">
        <ele>1738.917</ele>
        <time>2018-12-27T21:16:29Z</time>
      </trkpt>
      <trkpt lat="36.712700" lon="-110.250390">
        <ele>1739.287</ele>
        <time>2018-12-27T21:16:49Z</time>
      </trkpt>
      <trkpt lat="36.712260" lon="-110.250120">
        <ele>1739.515</ele>
        <time>2018-12-27T21:17:09Z</time>
      </trkpt>
      <trkpt lat="36.712080" lon="-110.250000">
        <ele>1739.508</ele>
        <time>2018-12-27T21:17:29Z</time>
      </trkpt>
      <trkpt lat="36.711050" lon="-110.249330">
        <ele>1739.664</ele>
        <time>2018-12-27T21:17:49Z</time>
      </trkpt>
      <trkpt lat="36.710340" lon="-110.248880">
        <ele>1740.132</ele>
        <time>2018-12-27T21:18:09Z</time>
      </trkpt>
      <trkpt lat="36.709690" lon="-110.248480">
        <ele>1740.217</ele>
        <time>2018-12-27T21:18:29Z</time>
      </trkpt>
      <trkpt lat="36.709390" lon="-110.248300">
        <ele>1740.118</ele>
        <time>2018-12-27T21:18:49Z</time>
      </trkpt>
      <trkpt lat="36.709140" lon="-110.248130">
        <ele>1740.063</ele>
        <time>2018-12-27T21:19:09Z</time>
      </trkpt>
      <trkpt lat="36.708970" lon="-110.248020">
        <ele>1740.151</ele>
        <time>2018-12-27T21:19:29Z</time>
      </trkpt>
      <trkpt lat="36.708700" lon="-110.247850">
        <ele>1740.933</ele>
        <time>2018-12-27T21:19:49Z</time>
      </trkpt>
      <trkpt lat="36.708390" lon="-110.247660">
        <ele>1742.362</ele>
        <time>2018-12-27T21:20:09Z</time>
      </trkpt>
      <trkpt lat="36.708180" lon="-110.247530">
        <ele>1743.152</ele>
        <time>2018-12-27T21:20:29Z</time>
      </trkpt>
      <trkpt lat="36.707720" lon="-110.247230">
        <ele>1743.853</ele>
        <time>2018-12-27T21:20:49Z</time>
      </trkpt>
      <trkpt lat="36.707718" lon="-110.247226">
        <ele>1743.808</ele>
        <time>2018-12-27T21:21:09Z</time>
      </trkpt>
      <trkpt lat="36.707620" lon="-110.247870">
        <ele>1744.708</ele>
        <time>2018-12-27T21:21:29Z</time>
      </trkpt>
      <trkpt lat="36.707540" lon="-110.248380">
        <ele>1744.698</ele>
        <time>2018-12-27T21:21:49Z</time>
      </trkpt>
      <trkpt lat="36.707500" lon="-110.248640">
        <ele>1744.646</ele>
        <time>2018-12-27T21:22:09Z</time>
      </trkpt>
      <trkpt lat="36.707450" lon="-110.248960">
        <ele>1744.621</ele>
        <time>2018-12-27T21:22:29Z</time>
      </trkpt>
      <trkpt lat="36.707380" lon="-110.249440">
        <ele>1744.892</ele>
        <time>2018-12-27T21:22:49Z</time>
      </trkpt>
      <trkpt lat="36.707320" lon="-110.249850">
        <ele>1744.977</ele>
        <time>2018-12-27T21:23:09Z</time>
      </trkpt>
      <trkpt lat="36.707210" lon="-110.250540">
        <ele>1745.415</ele>
        <time>2018-12-27T21:23:29Z</time>
      </trkpt>
      <trkpt lat="36.707110" lon="-110.251160">
        <ele>1746.247</ele>
        <time>2018-12-27T21:23:49Z</time>
      </trkpt>
      <trkpt lat="36.706970" lon="-110.252070">
        <ele>1748.166</ele>
        <time>2018-12-27T21:24:09Z</time>
      </trkpt>
      <trkpt lat="36.706890" lon="-110.252550">
        <ele>1749.237</ele>
        <time>2018-12-27T21:24:29Z</time>
      </trkpt>
      <trkpt lat="36.706740" lon="-110.253600">
        <ele>1751.149</ele>
        <time>2018-12-27T21:24:49Z</time>
      </trkpt>
      <trkpt lat="36.706480" lon="-110.255480">
        <ele>1753.813</ele>
        <time>2018-12-27T21:25:09Z</time>
      </trkpt>
      <trkpt lat="36.706410" lon="-110.256020">
        <ele>1754.408</ele>
        <time>2018-12-27T21:25:29Z</time>
      </trkpt>
      <trkpt lat="36.706220" lon="-110.257300">
        <ele>1756.586</ele>
        <time>2018-12-27T21:25:49Z</time>
      </trkpt>
      <trkpt lat="36.705930" lon="-110.259330">
        <ele>1756.864</ele>
        <time>2018-12-27T21:26:09Z</time>
      </trkpt>
      <trkpt lat="36.705490" lon="-110.262180">
        <ele>1759.819</ele>
        <time>2018-12-27T21:26:29Z</time>
      </trkpt>
      <trkpt lat="36.705050" lon="-110.265090">
        <ele>1761.920</ele>
        <time>2018-12-27T21:26:49Z</time>
      </trkpt>
      <trkpt lat="36.704740" lon="-110.267140">
        <ele>1762.485</ele>
        <time>2018-12-27T21:27:09Z</time>
      </trkpt>
      <trkpt lat="36.704470" lon="-110.268860">
        <ele>1763.233</ele>
        <time>2018-12-27T21:27:29Z</time>
      </trkpt>
      <trkpt lat="36.704220" lon="-110.270460">
        <ele>1764.575</ele>
        <time>2018-12-27T21:27:49Z</time>
      </trkpt>
      <trkpt lat="36.703480" lon="-110.275270">
        <ele>1770.544</ele>
        <time>2018-12-27T21:28:09Z</time>
      </trkpt>
      <trkpt lat="36.700720" lon="-110.293220">
        <ele>1801.345</ele>
        <time>2018-12-27T21:28:29Z</time>
      </trkpt>
      <trkpt lat="36.700610" lon="-110.293920">
        <ele>1804.547</ele>
        <time>2018-12-27T21:28:49Z</time>
      </trkpt>
      <trkpt lat="36.700320" lon="-110.295810">
        <ele>1806.611</ele>
        <time>2018-12-27T21:29:09Z</time>
      </trkpt>
      <trkpt lat="36.700190" lon="-110.296710">
        <ele>1807.208</ele>
        <time>2018-12-27T21:29:29Z</time>
      </trkpt>
      <trkpt lat="36.700040" lon="-110.297610">
        <ele>1808.077</ele>
        <time>2018-12-27T21:29:49Z</time>
      </trkpt>
      <trkpt lat="36.699690" lon="-110.299880">
        <ele>1809.485</ele>
        <time>2018-12-27T21:30:09Z</time>
      </trkpt>
      <trkpt lat="36.699560" lon="-110.300800">
        <ele>1810.230</ele>
        <time>2018-12-27T21:30:29Z</time>
      </trkpt>
      <trkpt lat="36.699530" lon="-110.301090">
        <ele>1810.541</ele>
        <time>2018-12-27T21:30:49Z</time>
      </trkpt>
      <trkpt lat="36.699520" lon="-110.301190">
        <ele>1810.636</ele>
        <time>2018-12-27T21:31:09Z</time>
      </trkpt>
      <trkpt lat="36.699510" lon="-110.301300">
        <ele>1810.684</ele>
        <time>2018-12-27T21:31:29Z</time>
      </trkpt>
      <trkpt lat="36.699490" lon="-110.301480">
        <ele>1810.786</ele>
        <time>2018-12-27T21:31:49Z</time>
      </trkpt>
      <trkpt lat="36.699480" lon="-110.301620">
        <ele>1810.755</ele>
        <time>2018-12-27T21:32:09Z</time>
      </trkpt>
      <trkpt lat="36.699470" lon="-110.301750">
        <ele>1810.755</ele>
        <time>2018-12-27T21:32:29Z</time>
      </trkpt>
      <trkpt lat="36.699460" lon="-110.301920">
        <ele>1810.707</ele>
        <time>2018-12-27T21:32:49Z</time>
      </trkpt>
      <trkpt lat="36.699440" lon="-110.302400">
        <ele>1810.317</ele>
        <time>2018-12-27T21:33:09Z</time>
      </trkpt>
      <trkpt lat="36.699430" lon="-110.302770">
        <ele>1809.808</ele>
        <time>2018-12-27T21:33:29Z</time>
      </trkpt>
      <trkpt lat="36.699410" lon="-110.303250">
        <ele>1808.858</ele>
        <time>2018-12-27T21:33:49Z</time>
      </trkpt>
      <trkpt lat="36.699350" lon="-110.305830">
        <ele>1793.576</ele>
        <time>2018-12-27T21:34:09Z</time>
      </trkpt>
      <trkpt lat="36.699250" lon="-110.309410">
        <ele>1803.481</ele>
        <time>2018-12-27T21:34:29Z</time>
      </trkpt>
      <trkpt lat="36.699230" lon="-110.310220">
        <ele>1805.122</ele>
        <time>2018-12-27T21:34:49Z</time>
      </trkpt>
      <trkpt lat="36.698980" lon="-110.318610">
        <ele>1819.217</ele>
        <time>2018-12-27T21:35:09Z</time>
      </trkpt>
      <trkpt lat="36.698920" lon="-110.320680">
        <ele>1827.195</ele>
        <time>2018-12-27T21:35:29Z</time>
      </trkpt>
      <trkpt lat="36.698870" lon="-110.322210">
        <ele>1821.117</ele>
        <time>2018-12-27T21:35:49Z</time>
      </trkpt>
      <trkpt lat="36.698810" lon="-110.324470">
        <ele>1814.176</ele>
        <time>2018-12-27T21:36:09Z</time>
      </trkpt>
      <trkpt lat="36.698740" lon="-110.326880">
        <ele>1815.799</ele>
        <time>2018-12-27T21:36:29Z</time>
      </trkpt>
      <trkpt lat="36.698690" lon="-110.328690">
        <ele>1816.107</ele>
        <time>2018-12-27T21:36:49Z</time>
      </trkpt>
      <trkpt lat="36.698650" lon="-110.329920">
        <ele>1813.727</ele>
        <time>2018-12-27T21:37:09Z</time>
      </trkpt>
      <trkpt lat="36.698630" lon="-110.330870">
        <ele>1812.908</ele>
        <time>2018-12-27T21:37:29Z</time>
      </trkpt>
      <trkpt lat="36.698610" lon="-110.331340">
        <ele>1813.052</ele>
        <time>2018-12-27T21:37:49Z</time>
      </trkpt>
      <trkpt lat="36.698580" lon="-110.332700">
        <ele>1813.640</ele>
        <time>2018-12-27T21:38:09Z</time>
      </trkpt>
      <trkpt lat="36.698530" lon="-110.333960">
        <ele>1814.625</ele>
        <time>2018-12-27T21:38:29Z</time>
      </trkpt>
      <trkpt lat="36.698510" lon="-110.334560">
        <ele>1814.076</ele>
        <time>2018-12-27T21:38:49Z</time>
      </trkpt>
      <trkpt lat="36.698500" lon="-110.334880">
        <ele>1813.281</ele>
        <time>2018-12-27T21:39:09Z</time>
      </trkpt>
      <trkpt lat="36.698480" lon="-110.335210">
        <ele>1812.629</ele>
        <time>2018-12-27T21:39:29Z</time>
      </trkpt>
      <trkpt lat="36.698460" lon="-110.335490">
        <ele>1812.281</ele>
        <time>2018-12-27T21:39:49Z</time>
      </trkpt>
      <trkpt lat="36.698450" lon="-110.335620">
        <ele>1812.040</ele>
        <time>2018-12-27T21:40:09Z</time>
      </trkpt>
      <trkpt lat="36.698440" lon="-110.335790">
        <ele>1811.853</ele>
        <time>2018-12-27T21:40:29Z</time>
      </trkpt>
      <trkpt lat="36.698420" lon="-110.335970">
        <ele>1811.604</ele>
        <time>2018-12-27T21:40:49Z</time>
      </trkpt>
      <trkpt lat="36.698400" lon="-110.336160">
        <ele>1811.414</ele>
        <time>2018-12-27T21:41:09Z</time>
      </trkpt>
      <trkpt lat="36.698370" lon="-110.336370">
        <ele>1811.308</ele>
        <time>2018-12-27T21:41:29Z</time>
      </trkpt>
      <trkpt lat="36.698330" lon="-110.336680">
        <ele>1811.298</ele>
        <time>2018-12-27T21:41:49Z</time>
      </trkpt>
      <trkpt lat="36.698280" lon="-110.336980">
        <ele>1811.336</ele>
        <time>2018-12-27T21:42:09Z</time>
      </trkpt>
      <trkpt lat="36.698230" lon="-110.337260">
        <ele>1811.571</ele>
        <time>2018-12-27T21:42:29Z</time>
      </trkpt>
      <trkpt lat="36.698180" lon="-110.337540">
        <ele>1811.682</ele>
        <time>2018-12-27T21:42:49Z</time>
      </trkpt>
      <trkpt lat="36.698090" lon="-110.338030">
        <ele>1812.147</ele>
        <time>2018-12-27T21:43:09Z</time>
      </trkpt>
      <trkpt lat="36.697980" lon="-110.338630">
        <ele>1812.775</ele>
        <time>2018-12-27T21:43:29Z</time>
      </trkpt>
      <trkpt lat="36.697690" lon="-110.340290">
        <ele>1814.567</ele>
        <time>2018-12-27T21:43:49Z</time>
      </trkpt>
      <trkpt lat="36.697470" lon="-110.341490">
        <ele>1817.296</ele>
        <time>2018-12-27T21:44:09Z</time>
      </trkpt>
      <trkpt lat="36.697310" lon="-110.342410">
        <ele>1817.659</ele>
        <time>2018-12-27T21:44:29Z</time>
      </trkpt>
      <trkpt lat="36.697050" lon="-110.343850">
        <ele>1815.703</ele>
        <time>2018-12-27T21:44:49Z</time>
      </trkpt>
      <trkpt lat="36.696780" lon="-110.345370">
        <ele>1813.923</ele>
        <time>2018-12-27T21:45:09Z</time>
      </trkpt>
      <trkpt lat="36.696630" lon="-110.346180">
        <ele>1813.208</ele>
        <time>2018-12-27T21:45:29Z</time>
      </trkpt>
      <trkpt lat="36.696570" lon="-110.346540">
        <ele>1813.098</ele>
        <time>2018-12-27T21:45:49Z</time>
      </trkpt>
      <trkpt lat="36.696490" lon="-110.346960">
        <ele>1812.996</ele>
        <time>2018-12-27T21:46:09Z</time>
      </trkpt>
      <trkpt lat="36.696300" lon="-110.348000">
        <ele>1813.241</ele>
        <time>2018-12-27T21:46:29Z</time>
      </trkpt>
      <trkpt lat="36.695950" lon="-110.349990">
        <ele>1816.612</ele>
        <time>2018-12-27T21:46:49Z</time>
      </trkpt>
      <trkpt lat="36.695820" lon="-110.350690">
        <ele>1817.787</ele>
        <time>2018-12-27T21:47:09Z</time>
      </trkpt>
      <trkpt lat="36.695640" lon="-110.351680">
        <ele>1816.665</ele>
        <time>2018-12-27T21:47:29Z</time>
      </trkpt>
      <trkpt lat="36.695400" lon="-110.353010">
        <ele>1816.517</ele>
        <time>2018-12-27T21:47:49Z</time>
      </trkpt>
      <trkpt lat="36.695180" lon="-110.354270">
        <ele>1816.796</ele>
        <time>2018-12-27T21:48:09Z</time>
      </trkpt>
      <trkpt lat="36.694910" lon="-110.355770">
        <ele>1815.846</ele>
        <time>2018-12-27T21:48:29Z</time>
      </trkpt>
      <trkpt lat="36.694730" lon="-110.356760">
        <ele>1816.388</ele>
        <time>2018-12-27T21:48:49Z</time>
      </trkpt>
      <trkpt lat="36.694520" lon="-110.357940">
        <ele>1817.216</ele>
        <time>2018-12-27T21:49:09Z</time>
      </trkpt>
      <trkpt lat="36.694230" lon="-110.359570">
        <ele>1819.908</ele>
        <time>2018-12-27T21:49:29Z</time>
      </trkpt>
      <trkpt lat="36.694030" lon="-110.360670">
        <ele>1820.337</ele>
        <time>2018-12-27T21:49:49Z</time>
      </trkpt>
      <trkpt lat="36.693880" lon="-110.361470">
        <ele>1824.845</ele>
        <time>2018-12-27T21:50:09Z</time>
      </trkpt>
      <trkpt lat="36.693800" lon="-110.361800">
        <ele>1826.670</ele>
        <time>2018-12-27T21:50:29Z</time>
      </trkpt>
      <trkpt lat="36.693720" lon="-110.362160">
        <ele>1828.281</ele>
        <time>2018-12-27T21:50:49Z</time>
      </trkpt>
      <trkpt lat="36.693640" lon="-110.362450">
        <ele>1828.886</ele>
        <time>2018-12-27T21:51:09Z</time>
      </trkpt>
      <trkpt lat="36.693550" lon="-110.362740">
        <ele>1829.284</ele>
        <time>2018-12-27T21:51:29Z</time>
      </trkpt>
      <trkpt lat="36.693460" lon="-110.363020">
        <ele>1829.526</ele>
        <time>2018-12-27T21:51:49Z</time>
      </trkpt>
      <trkpt lat="36.693350" lon="-110.363360">
        <ele>1830.835</ele>
        <time>2018-12-27T21:52:09Z</time>
      </trkpt>
      <trkpt lat="36.693250" lon="-110.363640">
        <ele>1832.424</ele>
        <time>2018-12-27T21:52:29Z</time>
      </trkpt>
      <trkpt lat="36.693130" lon="-110.363960">
        <ele>1834.004</ele>
        <time>2018-12-27T21:52:49Z</time>
      </trkpt>
      <trkpt lat="36.692970" lon="-110.364340">
        <ele>1835.314</ele>
        <time>2018-12-27T21:53:09Z</time>
      </trkpt>
      <trkpt lat="36.692890" lon="-110.364520">
        <ele>1835.808</ele>
        <time>2018-12-27T21:53:29Z</time>
      </trkpt>
      <trkpt lat="36.692800" lon="-110.364710">
        <ele>1836.355</ele>
        <time>2018-12-27T21:53:49Z</time>
      </trkpt>
      <trkpt lat="36.692690" lon="-110.364930">
        <ele>1836.923</ele>
        <time>2018-12-27T21:54:09Z</time>
      </trkpt>
      <trkpt lat="36.692580" lon="-110.365150">
        <ele>1837.348</ele>
        <time>2018-12-27T21:54:29Z</time>
      </trkpt>
      <trkpt lat="36.692300" lon="-110.365660">
        <ele>1837.539</ele>
        <time>2018-12-27T21:54:49Z</time>
      </trkpt>
      <trkpt lat="36.691980" lon="-110.366240">
        <ele>1835.114</ele>
        <time>2018-12-27T21:55:09Z</time>
      </trkpt>
      <trkpt lat="36.691650" lon="-110.366820">
        <ele>1829.862</ele>
        <time>2018-12-27T21:55:29Z</time>
      </trkpt>
      <trkpt lat="36.691330" lon="-110.367410">
        <ele>1829.214</ele>
        <time>2018-12-27T21:55:49Z</time>
      </trkpt>
      <trkpt lat="36.690950" lon="-110.368080">
        <ele>1828.453</ele>
        <time>2018-12-27T21:56:09Z</time>
      </trkpt>
      <trkpt lat="36.690260" lon="-110.369320">
        <ele>1826.798</ele>
        <time>2018-12-27T21:56:29Z</time>
      </trkpt>
      <trkpt lat="36.689570" lon="-110.370540">
        <ele>1826.115</ele>
        <time>2018-12-27T21:56:49Z</time>
      </trkpt>
      <trkpt lat="36.689210" lon="-110.371200">
        <ele>1826.826</ele>
        <time>2018-12-27T21:57:09Z</time>
      </trkpt>
      <trkpt lat="36.688690" lon="-110.372110">
        <ele>1827.608</ele>
        <time>2018-12-27T21:57:29Z</time>
      </trkpt>
      <trkpt lat="36.688560" lon="-110.372350">
        <ele>1827.932</ele>
        <time>2018-12-27T21:57:49Z</time>
      </trkpt>
      <trkpt lat="36.688200" lon="-110.372990">
        <ele>1829.480</ele>
        <time>2018-12-27T21:58:09Z</time>
      </trkpt>
      <trkpt lat="36.687540" lon="-110.374170">
        <ele>1831.335</ele>
        <time>2018-12-27T21:58:29Z</time>
      </trkpt>
      <trkpt lat="36.687240" lon="-110.374710">
        <ele>1834.126</ele>
        <time>2018-12-27T21:58:49Z</time>
      </trkpt>
      <trkpt lat="36.687060" lon="-110.375030">
        <ele>1834.811</ele>
        <time>2018-12-27T21:59:09Z</time>
      </trkpt>
      <trkpt lat="36.686810" lon="-110.375480">
        <ele>1834.269</ele>
        <time>2018-12-27T21:59:29Z</time>
      </trkpt>
      <trkpt lat="36.686490" lon="-110.376050">
        <ele>1832.351</ele>
        <time>2018-12-27T21:59:49Z</time>
      </trkpt>
      <trkpt lat="36.686260" lon="-110.376460">
        <ele>1832.570</ele>
        <time>2018-12-27T22:00:09Z</time>
      </trkpt>
      <trkpt lat="36.685980" lon="-110.376960">
        <ele>1833.477</ele>
        <time>2018-12-27T22:00:29Z</time>
      </trkpt>
      <trkpt lat="36.685650" lon="-110.377560">
        <ele>1834.161</ele>
        <time>2018-12-27T22:00:49Z</time>
      </trkpt>
      <trkpt lat="36.685060" lon="-110.378610">
        <ele>1834.627</ele>
        <time>2018-12-27T22:01:09Z</time>
      </trkpt>
      <trkpt lat="36.684760" lon="-110.379140">
        <ele>1836.808</ele>
        <time>2018-12-27T22:01:29Z</time>
      </trkpt>
      <trkpt lat="36.684100" lon="-110.380320">
        <ele>1846.210</ele>
        <time>2018-12-27T22:01:49Z</time>
      </trkpt>
      <trkpt lat="36.683600" lon="-110.381200">
        <ele>1842.538</ele>
        <time>2018-12-27T22:02:09Z</time>
      </trkpt>
      <trkpt lat="36.683100" lon="-110.382110">
        <ele>1840.323</ele>
        <time>2018-12-27T22:02:29Z</time>
      </trkpt>
      <trkpt lat="36.682600" lon="-110.383000">
        <ele>1832.694</ele>
        <time>2018-12-27T22:02:49Z</time>
      </trkpt>
      <trkpt lat="36.682030" lon="-110.384020">
        <ele>1832.589</ele>
        <time>2018-12-27T22:03:09Z</time>
      </trkpt>
      <trkpt lat="36.681720" lon="-110.384570">
        <ele>1832.297</ele>
        <time>2018-12-27T22:03:29Z</time>
      </trkpt>
      <trkpt lat="36.681280" lon="-110.385360">
        <ele>1832.869</ele>
        <time>2018-12-27T22:03:49Z</time>
      </trkpt>
      <trkpt lat="36.680250" lon="-110.387190">
        <ele>1839.128</ele>
        <time>2018-12-27T22:04:09Z</time>
      </trkpt>
      <trkpt lat="36.679730" lon="-110.388090">
        <ele>1841.922</ele>
        <time>2018-12-27T22:04:29Z</time>
      </trkpt>
      <trkpt lat="36.679130" lon="-110.389160">
        <ele>1842.062</ele>
        <time>2018-12-27T22:04:49Z</time>
      </trkpt>
      <trkpt lat="36.678590" lon="-110.390150">
        <ele>1845.208</ele>
        <time>2018-12-27T22:05:09Z</time>
      </trkpt>
      <trkpt lat="36.677550" lon="-110.391970">
        <ele>1848.908</ele>
        <time>2018-12-27T22:05:29Z</time>
      </trkpt>
      <trkpt lat="36.676790" lon="-110.393250">
        <ele>1850.075</ele>
        <time>2018-12-27T22:05:49Z</time>
      </trkpt>
      <trkpt lat="36.676370" lon="-110.393970">
        <ele>1849.983</ele>
        <time>2018-12-27T22:06:09Z</time>
      </trkpt>
      <trkpt lat="36.675070" lon="-110.396200">
        <ele>1849.878</ele>
        <time>2018-12-27T22:06:29Z</time>
      </trkpt>
      <trkpt lat="36.674750" lon="-110.396720">
        <ele>1850.029</ele>
        <time>2018-12-27T22:06:49Z</time>
      </trkpt>
      <trkpt lat="36.674290" lon="-110.397500">
        <ele>1850.584</ele>
        <time>2018-12-27T22:07:09Z</time>
      </trkpt>
      <trkpt lat="36.674080" lon="-110.397860">
        <ele>1850.952</ele>
        <time>2018-12-27T22:07:29Z</time>
      </trkpt>
      <trkpt lat="36.673670" lon="-110.398540">
        <ele>1851.124</ele>
        <time>2018-12-27T22:07:49Z</time>
      </trkpt>
      <trkpt lat="36.673020" lon="-110.399600">
        <ele>1841.773</ele>
        <time>2018-12-27T22:08:09Z</time>
      </trkpt>
      <trkpt lat="36.672540" lon="-110.400410">
        <ele>1840.845</ele>
        <time>2018-12-27T22:08:29Z</time>
      </trkpt>
      <trkpt lat="36.672000" lon="-110.401310">
        <ele>1840.647</ele>
        <time>2018-12-27T22:08:49Z</time>
      </trkpt>
      <trkpt lat="36.671610" lon="-110.401980">
        <ele>1840.711</ele>
        <time>2018-12-27T22:09:09Z</time>
      </trkpt>
      <trkpt lat="36.670900" lon="-110.403150">
        <ele>1839.308</ele>
        <time>2018-12-27T22:09:29Z</time>
      </trkpt>
      <trkpt lat="36.670140" lon="-110.404420">
        <ele>1839.377</ele>
        <time>2018-12-27T22:09:49Z</time>
      </trkpt>
      <trkpt lat="36.669130" lon="-110.406120">
        <ele>1844.435</ele>
        <time>2018-12-27T22:10:09Z</time>
      </trkpt>
      <trkpt lat="36.667920" lon="-110.408110">
        <ele>1842.750</ele>
        <time>2018-12-27T22:10:29Z</time>
      </trkpt>
      <trkpt lat="36.667060" lon="-110.409540">
        <ele>1844.911</ele>
        <time>2018-12-27T22:10:49Z</time>
      </trkpt>
      <trkpt lat="36.666730" lon="-110.410100">
        <ele>1848.276</ele>
        <time>2018-12-27T22:11:09Z</time>
      </trkpt>
      <trkpt lat="36.666580" lon="-110.410360">
        <ele>1850.764</ele>
        <time>2018-12-27T22:11:29Z</time>
      </trkpt>
      <trkpt lat="36.666450" lon="-110.410590">
        <ele>1853.796</ele>
        <time>2018-12-27T22:11:49Z</time>
      </trkpt>
      <trkpt lat="36.666260" lon="-110.410920">
        <ele>1853.535</ele>
        <time>2018-12-27T22:12:09Z</time>
      </trkpt>
      <trkpt lat="36.666100" lon="-110.411180">
        <ele>1852.481</ele>
        <time>2018-12-27T22:12:29Z</time>
      </trkpt>
      <trkpt lat="36.665740" lon="-110.411790">
        <ele>1858.261</ele>
        <time>2018-12-27T22:12:49Z</time>
      </trkpt>
      <trkpt lat="36.664730" lon="-110.413480">
        <ele>1856.017</ele>
        <time>2018-12-27T22:13:09Z</time>
      </trkpt>
      <trkpt lat="36.664470" lon="-110.413880">
        <ele>1857.608</ele>
        <time>2018-12-27T22:13:29Z</time>
      </trkpt>
      <trkpt lat="36.663760" lon="-110.415030">
        <ele>1860.861</ele>
        <time>2018-12-27T22:13:49Z</time>
      </trkpt>
      <trkpt lat="36.663450" lon="-110.415570">
        <ele>1866.849</ele>
        <time>2018-12-27T22:14:09Z</time>
      </trkpt>
      <trkpt lat="36.663060" lon="-110.416230">
        <ele>1871.684</ele>
        <time>2018-12-27T22:14:29Z</time>
      </trkpt>
      <trkpt lat="36.662750" lon="-110.416730">
        <ele>1874.215</ele>
        <time>2018-12-27T22:14:49Z</time>
      </trkpt>
      <trkpt lat="36.662380" lon="-110.417350">
        <ele>1874.450</ele>
        <time>2018-12-27T22:15:09Z</time>
      </trkpt>
      <trkpt lat="36.662170" lon="-110.417690">
        <ele>1874.438</ele>
        <time>2018-12-27T22:15:29Z</time>
      </trkpt>
      <trkpt lat="36.661990" lon="-110.417980">
        <ele>1878.070</ele>
        <time>2018-12-27T22:15:49Z</time>
      </trkpt>
      <trkpt lat="36.661870" lon="-110.418160">
        <ele>1878.299</ele>
        <time>2018-12-27T22:16:09Z</time>
      </trkpt>
      <trkpt lat="36.661790" lon="-110.418280">
        <ele>1878.812</ele>
        <time>2018-12-27T22:16:29Z</time>
      </trkpt>
      <trkpt lat="36.661710" lon="-110.418400">
        <ele>1880.232</ele>
        <time>2018-12-27T22:16:49Z</time>
      </trkpt>
      <trkpt lat="36.661620" lon="-110.418510">
        <ele>1879.905</ele>
        <time>2018-12-27T22:17:09Z</time>
      </trkpt>
      <trkpt lat="36.661480" lon="-110.418690">
        <ele>1881.008</ele>
        <time>2018-12-27T22:17:29Z</time>
      </trkpt>
      <trkpt lat="36.661410" lon="-110.418780">
        <ele>1882.894</ele>
        <time>2018-12-27T22:17:49Z</time>
      </trkpt>
      <trkpt lat="36.661350" lon="-110.418850">
        <ele>1883.052</ele>
        <time>2018-12-27T22:18:09Z</time>
      </trkpt>
      <trkpt lat="36.661290" lon="-110.418910">
        <ele>1882.167</ele>
        <time>2018-12-27T22:18:29Z</time>
      </trkpt>
      <trkpt lat="36.661220" lon="-110.418980">
        <ele>1880.758</ele>
        <time>2018-12-27T22:18:49Z</time>
      </trkpt>
      <trkpt lat="36.661120" lon="-110.419090">
        <ele>1881.663</ele>
        <time>2018-12-27T22:19:09Z</time>
      </trkpt>
      <trkpt lat="36.661000" lon="-110.419200">
        <ele>1880.861</ele>
        <time>2018-12-27T22:19:29Z</time>
      </trkpt>
      <trkpt lat="36.660740" lon="-110.419430">
        <ele>1882.523</ele>
        <time>2018-12-27T22:19:49Z</time>
      </trkpt>
      <trkpt lat="36.660540" lon="-110.419610">
        <ele>1883.022</ele>
        <time>2018-12-27T22:20:09Z</time>
      </trkpt>
      <trkpt lat="36.660360" lon="-110.419740">
        <ele>1883.289</ele>
        <time>2018-12-27T22:20:29Z</time>
      </trkpt>
      <trkpt lat="36.659610" lon="-110.420350">
        <ele>1880.206</ele>
        <time>2018-12-27T22:20:49Z</time>
      </trkpt>
      <trkpt lat="36.658810" lon="-110.420970">
        <ele>1878.726</ele>
        <time>2018-12-27T22:21:09Z</time>
      </trkpt>
      <trkpt lat="36.657830" lon="-110.421740">
        <ele>1872.508</ele>
        <time>2018-12-27T22:21:29Z</time>
      </trkpt>
      <trkpt lat="36.656990" lon="-110.422400">
        <ele>1862.851</ele>
        <time>2018-12-27T22:21:49Z</time>
      </trkpt>
      <trkpt lat="36.656300" lon="-110.422940">
        <ele>1854.659</ele>
        <time>2018-12-27T22:22:09Z</time>
      </trkpt>
      <trkpt lat="36.655690" lon="-110.423410">
        <ele>1856.284</ele>
        <time>2018-12-27T22:22:29Z</time>
      </trkpt>
      <trkpt lat="36.654900" lon="-110.424040">
        <ele>1860.265</ele>
        <time>2018-12-27T22:22:49Z</time>
      </trkpt>
      <trkpt lat="36.654150" lon="-110.424630">
        <ele>1872.890</ele>
        <time>2018-12-27T22:23:09Z</time>
      </trkpt>
      <trkpt lat="36.653690" lon="-110.425010">
        <ele>1880.928</ele>
        <time>2018-12-27T22:23:29Z</time>
      </trkpt>
      <trkpt lat="36.653470" lon="-110.425190">
        <ele>1879.440</ele>
        <time>2018-12-27T22:23:49Z</time>
      </trkpt>
      <trkpt lat="36.653290" lon="-110.425350">
        <ele>1881.849</ele>
        <time>2018-12-27T22:24:09Z</time>
      </trkpt>
      <trkpt lat="36.653060" lon="-110.425560">
        <ele>1883.254</ele>
        <time>2018-12-27T22:24:29Z</time>
      </trkpt>
      <trkpt lat="36.652950" lon="-110.425660">
        <ele>1880.156</ele>
        <time>2018-12-27T22:24:49Z</time>
      </trkpt>
      <trkpt lat="36.652800" lon="-110.425800">
        <ele>1884.011</ele>
        <time>2018-12-27T22:25:09Z</time>
      </trkpt>
      <trkpt lat="36.652650" lon="-110.425960">
        <ele>1881.808</ele>
        <time>2018-12-27T22:25:29Z</time>
      </trkpt>
      <trkpt lat="36.652480" lon="-110.426150">
        <ele>1888.738</ele>
        <time>2018-12-27T22:25:49Z</time>
      </trkpt>
      <trkpt lat="36.652100" lon="-110.426580">
        <ele>1888.596</ele>
        <time>2018-12-27T22:26:09Z</time>
      </trkpt>
      <trkpt lat="36.651380" lon="-110.427420">
        <ele>1890.321</ele>
        <time>2018-12-27T22:26:29Z</time>
      </trkpt>
      <trkpt lat="36.650770" lon="-110.428120">
        <ele>1896.932</ele>
        <time>2018-12-27T22:26:49Z</time>
      </trkpt>
      <trkpt lat="36.650060" lon="-110.428970">
        <ele>1897.077</ele>
        <time>2018-12-27T22:27:09Z</time>
      </trkpt>
      <trkpt lat="36.649120" lon="-110.430070">
        <ele>1898.975</ele>
        <time>2018-12-27T22:27:29Z</time>
      </trkpt>
      <trkpt lat="36.648590" lon="-110.430690">
        <ele>1897.667</ele>
        <time>2018-12-27T22:27:49Z</time>
      </trkpt>
      <trkpt lat="36.647900" lon="-110.431490">
        <ele>1898.626</ele>
        <time>2018-12-27T22:28:09Z</time>
      </trkpt>
      <trkpt lat="36.646890" lon="-110.432680">
        <ele>1902.875</ele>
        <time>2018-12-27T22:28:29Z</time>
      </trkpt>
      <trkpt lat="36.646350" lon="-110.433300">
        <ele>1906.928</ele>
        <time>2018-12-27T22:28:49Z</time>
      </trkpt>
      <trkpt lat="36.646230" lon="-110.433440">
        <ele>1910.220</ele>
        <time>2018-12-27T22:29:09Z</time>
      </trkpt>
      <trkpt lat="36.646080" lon="-110.433630">
        <ele>1912.108</ele>
        <time>2018-12-27T22:29:29Z</time>
      </trkpt>
      <trkpt lat="36.645940" lon="-110.433770">
        <ele>1913.320</ele>
        <time>2018-12-27T22:29:49Z</time>
      </trkpt>
      <trkpt lat="36.645760" lon="-110.433970">
        <ele>1914.948</ele>
        <time>2018-12-27T22:30:09Z</time>
      </trkpt>
      <trkpt lat="36.645500" lon="-110.434230">
        <ele>1916.173</ele>
        <time>2018-12-27T22:30:29Z</time>
      </trkpt>
      <trkpt lat="36.645340" lon="-110.434380">
        <ele>1916.954</ele>
        <time>2018-12-27T22:30:49Z</time>
      </trkpt>
      <trkpt lat="36.645210" lon="-110.434500">
        <ele>1917.379</ele>
        <time>2018-12-27T22:31:09Z</time>
      </trkpt>
      <trkpt lat="36.644890" lon="-110.434790">
        <ele>1917.087</ele>
        <time>2018-12-27T22:31:29Z</time>
      </trkpt>
      <trkpt lat="36.644720" lon="-110.434930">
        <ele>1917.399</ele>
        <time>2018-12-27T22:31:49Z</time>
      </trkpt>
      <trkpt lat="36.644380" lon="-110.435200">
        <ele>1918.298</ele>
        <time>2018-12-27T22:32:09Z</time>
      </trkpt>
      <trkpt lat="36.643910" lon="-110.435560">
        <ele>1918.527</ele>
        <time>2018-12-27T22:32:29Z</time>
      </trkpt>
      <trkpt lat="36.643640" lon="-110.435760">
        <ele>1918.168</ele>
        <time>2018-12-27T22:32:49Z</time>
      </trkpt>
      <trkpt lat="36.643190" lon="-110.436110">
        <ele>1916.614</ele>
        <time>2018-12-27T22:33:09Z</time>
      </trkpt>
      <trkpt lat="36.642920" lon="-110.436310">
        <ele>1916.408</ele>
        <time>2018-12-27T22:33:29Z</time>
      </trkpt>
      <trkpt lat="36.642510" lon="-110.436630">
        <ele>1915.535</ele>
        <time>2018-12-27T22:33:49Z</time>
      </trkpt>
      <trkpt lat="36.642150" lon="-110.436940">
        <ele>1914.573</ele>
        <time>2018-12-27T22:34:09Z</time>
      </trkpt>
      <trkpt lat="36.641960" lon="-110.437110">
        <ele>1914.258</ele>
        <time>2018-12-27T22:34:29Z</time>
      </trkpt>
      <trkpt lat="36.641760" lon="-110.437310">
        <ele>1914.269</ele>
        <time>2018-12-27T22:34:49Z</time>
      </trkpt>
      <trkpt lat="36.641520" lon="-110.437540">
        <ele>1914.454</ele>
        <time>2018-12-27T22:35:09Z</time>
      </trkpt>
      <trkpt lat="36.641080" lon="-110.438010">
        <ele>1913.862</ele>
        <time>2018-12-27T22:35:29Z</time>
      </trkpt>
      <trkpt lat="36.640810" lon="-110.438320">
        <ele>1912.934</ele>
        <time>2018-12-27T22:35:49Z</time>
      </trkpt>
      <trkpt lat="36.640500" lon="-110.438710">
        <ele>1911.773</ele>
        <time>2018-12-27T22:36:09Z</time>
      </trkpt>
      <trkpt lat="36.640270" lon="-110.439010">
        <ele>1910.871</ele>
        <time>2018-12-27T22:36:29Z</time>
      </trkpt>
      <trkpt lat="36.639830" lon="-110.439600">
        <ele>1909.341</ele>
        <time>2018-12-27T22:36:49Z</time>
      </trkpt>
      <trkpt lat="36.639500" lon="-110.440030">
        <ele>1908.615</ele>
        <time>2018-12-27T22:37:09Z</time>
      </trkpt>
      <trkpt lat="36.639170" lon="-110.440470">
        <ele>1907.808</ele>
        <time>2018-12-27T22:37:29Z</time>
      </trkpt>
      <trkpt lat="36.638800" lon="-110.440960">
        <ele>1906.040</ele>
        <time>2018-12-27T22:37:49Z</time>
      </trkpt>
      <trkpt lat="36.638270" lon="-110.441670">
        <ele>1902.538</ele>
        <time>2018-12-27T22:38:09Z</time>
      </trkpt>
      <trkpt lat="36.638090" lon="-110.441900">
        <ele>1902.053</ele>
        <time>2018-12-27T22:38:29Z</time>
      </trkpt>
      <trkpt lat="36.637900" lon="-110.442160">
        <ele>1901.754</ele>
        <time>2018-12-27T22:38:49Z</time>
      </trkpt>
      <trkpt lat="36.637530" lon="-110.442650">
        <ele>1900.459</ele>
        <time>2018-12-27T22:39:09Z</time>
      </trkpt>
      <trkpt lat="36.637150" lon="-110.443150">
        <ele>1897.567</ele>
        <time>2018-12-27T22:39:29Z</time>
      </trkpt>
      <trkpt lat="36.636710" lon="-110.443730">
        <ele>1895.979</ele>
        <time>2018-12-27T22:39:49Z</time>
      </trkpt>
      <trkpt lat="36.635750" lon="-110.444990">
        <ele>1899.988</ele>
        <time>2018-12-27T22:40:09Z</time>
      </trkpt>
      <trkpt lat="36.635220" lon="-110.445690">
        <ele>1900.482</ele>
        <time>2018-12-27T22:40:29Z</time>
      </trkpt>
      <trkpt lat="36.634700" lon="-110.446380">
        <ele>1899.343</ele>
        <time>2018-12-27T22:40:49Z</time>
      </trkpt>
      <trkpt lat="36.634430" lon="-110.446730">
        <ele>1899.417</ele>
        <time>2018-12-27T22:41:09Z</time>
      </trkpt>
      <trkpt lat="36.633430" lon="-110.448040">
        <ele>1900.808</ele>
        <time>2018-12-27T22:41:29Z</time>
      </trkpt>
      <trkpt lat="36.632910" lon="-110.448740">
        <ele>1903.361</ele>
        <time>2018-12-27T22:41:49Z</time>
      </trkpt>
      <trkpt lat="36.632650" lon="-110.449080">
        <ele>1906.849</ele>
        <time>2018-12-27T22:42:09Z</time>
      </trkpt>
      <trkpt lat="36.631830" lon="-110.450150">
        <ele>1912.624</ele>
        <time>2018-12-27T22:42:29Z</time>
      </trkpt>
      <trkpt lat="36.631490" lon="-110.450610">
        <ele>1912.635</ele>
        <time>2018-12-27T22:42:49Z</time>
      </trkpt>
      <trkpt lat="36.631150" lon="-110.451040">
        <ele>1911.240</ele>
        <time>2018-12-27T22:43:09Z</time>
      </trkpt>
      <trkpt lat="36.629470" lon="-110.453110">
        <ele>1912.088</ele>
        <time>2018-12-27T22:43:29Z</time>
      </trkpt>
      <trkpt lat="36.628920" lon="-110.453840">
        <ele>1913.220</ele>
        <time>2018-12-27T22:43:49Z</time>
      </trkpt>
      <trkpt lat="36.628460" lon="-110.454410">
        <ele>1912.019</ele>
        <time>2018-12-27T22:44:09Z</time>
      </trkpt>
      <trkpt lat="36.627820" lon="-110.455190">
        <ele>1910.616</ele>
        <time>2018-12-27T22:44:29Z</time>
      </trkpt>
      <trkpt lat="36.627270" lon="-110.455860">
        <ele>1910.276</ele>
        <time>2018-12-27T22:44:49Z</time>
      </trkpt>
      <trkpt lat="36.626880" lon="-110.456350">
        <ele>1910.913</ele>
        <time>2018-12-27T22:45:09Z</time>
      </trkpt>
      <trkpt lat="36.626350" lon="-110.457010">
        <ele>1912.708</ele>
        <time>2018-12-27T22:45:29Z</time>
      </trkpt>
      <trkpt lat="36.626160" lon="-110.457250">
        <ele>1913.174</ele>
        <time>2018-12-27T22:45:49Z</time>
      </trkpt>
      <trkpt lat="36.625900" lon="-110.457560">
        <ele>1912.992</ele>
        <time>2018-12-27T22:46:09Z</time>
      </trkpt>
      <trkpt lat="36.625670" lon="-110.457850">
        <ele>1912.117</ele>
        <time>2018-12-27T22:46:29Z</time>
      </trkpt>
      <trkpt lat="36.625430" lon="-110.458130">
        <ele>1911.538</ele>
        <time>2018-12-27T22:46:49Z</time>
      </trkpt>
      <trkpt lat="36.625330" lon="-110.458260">
        <ele>1911.223</ele>
        <time>2018-12-27T22:47:09Z</time>
      </trkpt>
      <trkpt lat="36.625190" lon="-110.458430">
        <ele>1910.841</ele>
        <time>2018-12-27T22:47:29Z</time>
      </trkpt>
      <trkpt lat="36.624890" lon="-110.458800">
        <ele>1909.943</ele>
        <time>2018-12-27T22:47:49Z</time>
      </trkpt>
      <trkpt lat="36.624430" lon="-110.459360">
        <ele>1908.822</ele>
        <time>2018-12-27T22:48:09Z</time>
      </trkpt>
      <trkpt lat="36.624000" lon="-110.459880">
        <ele>1908.197</ele>
        <time>2018-12-27T22:48:29Z</time>
      </trkpt>
      <trkpt lat="36.623720" lon="-110.460210">
        <ele>1908.223</ele>
        <time>2018-12-27T22:48:49Z</time>
      </trkpt>
      <trkpt lat="36.623530" lon="-110.460450">
        <ele>1908.725</ele>
        <time>2018-12-27T22:49:09Z</time>
      </trkpt>
      <trkpt lat="36.623430" lon="-110.460580">
        <ele>1908.908</ele>
        <time>2018-12-27T22:49:29Z</time>
      </trkpt>
      <trkpt lat="36.623190" lon="-110.460870">
        <ele>1909.672</ele>
        <time>2018-12-27T22:49:49Z</time>
      </trkpt>
      <trkpt lat="36.623070" lon="-110.461020">
        <ele>1909.990</ele>
        <time>2018-12-27T22:50:09Z</time>
      </trkpt>
      <trkpt lat="36.622920" lon="-110.461200">
        <ele>1910.085</ele>
        <time>2018-12-27T22:50:29Z</time>
      </trkpt>
      <trkpt lat="36.622760" lon="-110.461400">
        <ele>1910.366</ele>
        <time>2018-12-27T22:50:49Z</time>
      </trkpt>
      <trkpt lat="36.622550" lon="-110.461650">
        <ele>1910.581</ele>
        <time>2018-12-27T22:51:09Z</time>
      </trkpt>
      <trkpt lat="36.622360" lon="-110.461890">
        <ele>1910.419</ele>
        <time>2018-12-27T22:51:29Z</time>
      </trkpt>
      <trkpt lat="36.621980" lon="-110.462360">
        <ele>1910.711</ele>
        <time>2018-12-27T22:51:49Z</time>
      </trkpt>
      <trkpt lat="36.621600" lon="-110.462830">
        <ele>1912.150</ele>
        <time>2018-12-27T22:52:09Z</time>
      </trkpt>
      <trkpt lat="36.621110" lon="-110.463430">
        <ele>1915.692</ele>
        <time>2018-12-27T22:52:29Z</time>
      </trkpt>
      <trkpt lat="36.620970" lon="-110.463610">
        <ele>1916.673</ele>
        <time>2018-12-27T22:52:49Z</time>
      </trkpt>
      <trkpt lat="36.620650" lon="-110.464000">
        <ele>1918.720</ele>
        <time>2018-12-27T22:53:09Z</time>
      </trkpt>
      <trkpt lat="36.620370" lon="-110.464330">
        <ele>1920.008</ele>
        <time>2018-12-27T22:53:29Z</time>
      </trkpt>
      <trkpt lat="36.620200" lon="-110.464520">
        <ele>1920.842</ele>
        <time>2018-12-27T22:53:49Z</time>
      </trkpt>
      <trkpt lat="36.619950" lon="-110.464790">
        <ele>1922.380</ele>
        <time>2018-12-27T22:54:09Z</time>
      </trkpt>
      <trkpt lat="36.619790" lon="-110.464960">
        <ele>1923.245</ele>
        <time>2018-12-27T22:54:29Z</time>
      </trkpt>
      <trkpt lat="36.619420" lon="-110.465330">
        <ele>1924.716</ele>
        <time>2018-12-27T22:54:49Z</time>
      </trkpt>
      <trkpt lat="36.618740" lon="-110.465990">
        <ele>1925.071</ele>
        <time>2018-12-27T22:55:09Z</time>
      </trkpt>
      <trkpt lat="36.618510" lon="-110.466220">
        <ele>1924.499</ele>
        <time>2018-12-27T22:55:29Z</time>
      </trkpt>
      <trkpt lat="36.618030" lon="-110.466690">
        <ele>1923.351</ele>
        <time>2018-12-27T22:55:49Z</time>
      </trkpt>
      <trkpt lat="36.617790" lon="-110.466930">
        <ele>1923.070</ele>
        <time>2018-12-27T22:56:09Z</time>
      </trkpt>
      <trkpt lat="36.617130" lon="-110.467590">
        <ele>1922.952</ele>
        <time>2018-12-27T22:56:29Z</time>
      </trkpt>
      <trkpt lat="36.616190" lon="-110.468520">
        <ele>1924.653</ele>
        <time>2018-12-27T22:56:49Z</time>
      </trkpt>
      <trkpt lat="36.615870" lon="-110.468840">
        <ele>1925.108</ele>
        <time>2018-12-27T22:57:09Z</time>
      </trkpt>
      <trkpt lat="36.615240" lon="-110.469460">
        <ele>1925.808</ele>
        <time>2018-12-27T22:57:29Z</time>
      </trkpt>
      <trkpt lat="36.614820" lon="-110.469880">
        <ele>1926.148</ele>
        <time>2018-12-27T22:57:49Z</time>
      </trkpt>
      <trkpt lat="36.614530" lon="-110.470150">
        <ele>1926.436</ele>
        <time>2018-12-27T22:58:09Z</time>
      </trkpt>
      <trkpt lat="36.614180" lon="-110.470470">
        <ele>1926.331</ele>
        <time>2018-12-27T22:58:29Z</time>
      </trkpt>
      <trkpt lat="36.613860" lon="-110.470730">
        <ele>1926.362</ele>
        <time>2018-12-27T22:58:49Z</time>
      </trkpt>
      <trkpt lat="36.613580" lon="-110.470950">
        <ele>1926.327</ele>
        <time>2018-12-27T22:59:09Z</time>
      </trkpt>
      <trkpt lat="36.613200" lon="-110.471220">
        <ele>1926.515</ele>
        <time>2018-12-27T22:59:29Z</time>
      </trkpt>
      <trkpt lat="36.612870" lon="-110.471450">
        <ele>1926.657</ele>
        <time>2018-12-27T22:59:49Z</time>
      </trkpt>
      <trkpt lat="36.612380" lon="-110.471740">
        <ele>1926.826</ele>
        <time>2018-12-27T23:00:09Z</time>
      </trkpt>
      <trkpt lat="36.612180" lon="-110.471850">
        <ele>1926.963</ele>
        <time>2018-12-27T23:00:29Z</time>
      </trkpt>
      <trkpt lat="36.611910" lon="-110.471990">
        <ele>1927.244</ele>
        <time>2018-12-27T23:00:49Z</time>
      </trkpt>
      <trkpt lat="36.611590" lon="-110.472140">
        <ele>1927.718</ele>
        <time>2018-12-27T23:01:09Z</time>
      </trkpt>
      <trkpt lat="36.611380" lon="-110.472240">
        <ele>1928.608</ele>
        <time>2018-12-27T23:01:29Z</time>
      </trkpt>
      <trkpt lat="36.611040" lon="-110.472380">
        <ele>1929.719</ele>
        <time>2018-12-27T23:01:49Z</time>
      </trkpt>
      <trkpt lat="36.610750" lon="-110.472490">
        <ele>1930.727</ele>
        <time>2018-12-27T23:02:09Z</time>
      </trkpt>
      <trkpt lat="36.610620" lon="-110.472530">
        <ele>1931.062</ele>
        <time>2018-12-27T23:02:29Z</time>
      </trkpt>
      <trkpt lat="36.610440" lon="-110.472590">
        <ele>1931.523</ele>
        <time>2018-12-27T23:02:49Z</time>
      </trkpt>
      <trkpt lat="36.610290" lon="-110.472640">
        <ele>1931.968</ele>
        <time>2018-12-27T23:03:09Z</time>
      </trkpt>
      <trkpt lat="36.610110" lon="-110.472690">
        <ele>1932.466</ele>
        <time>2018-12-27T23:03:29Z</time>
      </trkpt>
      <trkpt lat="36.609610" lon="-110.472820">
        <ele>1933.788</ele>
        <time>2018-12-27T23:03:49Z</time>
      </trkpt>
      <trkpt lat="36.609440" lon="-110.472860">
        <ele>1934.287</ele>
        <time>2018-12-27T23:04:09Z</time>
      </trkpt>
      <trkpt lat="36.609160" lon="-110.472920">
        <ele>1935.088</ele>
        <time>2018-12-27T23:04:29Z</time>
      </trkpt>
      <trkpt lat="36.608960" lon="-110.472950">
        <ele>1935.624</ele>
        <time>2018-12-27T23:04:49Z</time>
      </trkpt>
      <trkpt lat="36.608710" lon="-110.472990">
        <ele>1936.326</ele>
        <time>2018-12-27T23:05:09Z</time>
      </trkpt>
      <trkpt lat="36.608300" lon="-110.473040">
        <ele>1937.208</ele>
        <time>2018-12-27T23:05:29Z</time>
      </trkpt>
      <trkpt lat="36.608140" lon="-110.473050">
        <ele>1937.551</ele>
        <time>2018-12-27T23:05:49Z</time>
      </trkpt>
      <trkpt lat="36.607790" lon="-110.473070">
        <ele>1938.019</ele>
        <time>2018-12-27T23:06:09Z</time>
      </trkpt>
      <trkpt lat="36.607630" lon="-110.473070">
        <ele>1938.214</ele>
        <time>2018-12-27T23:06:29Z</time>
      </trkpt>
      <trkpt lat="36.607480" lon="-110.473070">
        <ele>1938.475</ele>
        <time>2018-12-27T23:06:49Z</time>
      </trkpt>
      <trkpt lat="36.607250" lon="-110.473070">
        <ele>1938.630</ele>
        <time>2018-12-27T23:07:09Z</time>
      </trkpt>
      <trkpt lat="36.607100" lon="-110.473060">
        <ele>1938.798</ele>
        <time>2018-12-27T23:07:29Z</time>
      </trkpt>
      <trkpt lat="36.606510" lon="-110.473020">
        <ele>1937.510</ele>
        <time>2018-12-27T23:07:49Z</time>
      </trkpt>
      <trkpt lat="36.606200" lon="-110.473000">
        <ele>1937.089</ele>
        <time>2018-12-27T23:08:09Z</time>
      </trkpt>
      <trkpt lat="36.605850" lon="-110.472980">
        <ele>1936.969</ele>
        <time>2018-12-27T23:08:29Z</time>
      </trkpt>
      <trkpt lat="36.605080" lon="-110.472940">
        <ele>1937.304</ele>
        <time>2018-12-27T23:08:49Z</time>
      </trkpt>
      <trkpt lat="36.604110" lon="-110.472890">
        <ele>1938.424</ele>
        <time>2018-12-27T23:09:09Z</time>
      </trkpt>
      <trkpt lat="36.602760" lon="-110.472810">
        <ele>1941.208</ele>
        <time>2018-12-27T23:09:29Z</time>
      </trkpt>
      <trkpt lat="36.601760" lon="-110.472750">
        <ele>1942.949</ele>
        <time>2018-12-27T23:09:49Z</time>
      </trkpt>
      <trkpt lat="36.601000" lon="-110.472700">
        <ele>1944.697</ele>
        <time>2018-12-27T23:10:09Z</time>
      </trkpt>
      <trkpt lat="36.600110" lon="-110.472650">
        <ele>1946.782</ele>
        <time>2018-12-27T23:10:29Z</time>
      </trkpt>
      <trkpt lat="36.599340" lon="-110.472610">
        <ele>1948.113</ele>
        <time>2018-12-27T23:10:49Z</time>
      </trkpt>
      <trkpt lat="36.598360" lon="-110.472550">
        <ele>1949.878</ele>
        <time>2018-12-27T23:11:09Z</time>
      </trkpt>
      <trkpt lat="36.597610" lon="-110.472500">
        <ele>1950.566</ele>
        <time>2018-12-27T23:11:29Z</time>
      </trkpt>
      <trkpt lat="36.596830" lon="-110.472450">
        <ele>1951.588</ele>
        <time>2018-12-27T23:11:49Z</time>
      </trkpt>
      <trkpt lat="36.596050" lon="-110.472420">
        <ele>1955.127</ele>
        <time>2018-12-27T23:12:09Z</time>
      </trkpt>
      <trkpt lat="36.594790" lon="-110.472360">
        <ele>1959.378</ele>
        <time>2018-12-27T23:12:29Z</time>
      </trkpt>
      <trkpt lat="36.594040" lon="-110.472310">
        <ele>1961.733</ele>
        <time>2018-12-27T23:12:49Z</time>
      </trkpt>
      <trkpt lat="36.593070" lon="-110.472270">
        <ele>1962.926</ele>
        <time>2018-12-27T23:13:09Z</time>
      </trkpt>
      <trkpt lat="36.591840" lon="-110.472190">
        <ele>1961.208</ele>
        <time>2018-12-27T23:13:29Z</time>
      </trkpt>
      <trkpt lat="36.591070" lon="-110.472150">
        <ele>1961.070</ele>
        <time>2018-12-27T23:13:49Z</time>
      </trkpt>
      <trkpt lat="36.590340" lon="-110.472110">
        <ele>1961.588</ele>
        <time>2018-12-27T23:14:09Z</time>
      </trkpt>
      <trkpt lat="36.589680" lon="-110.472080">
        <ele>1962.253</ele>
        <time>2018-12-27T23:14:29Z</time>
      </trkpt>
      <trkpt lat="36.588910" lon="-110.472030">
        <ele>1963.264</ele>
        <time>2018-12-27T23:14:49Z</time>
      </trkpt>
      <trkpt lat="36.588240" lon="-110.472000">
        <ele>1965.169</ele>
        <time>2018-12-27T23:15:09Z</time>
      </trkpt>
      <trkpt lat="36.587670" lon="-110.471970">
        <ele>1967.217</ele>
        <time>2018-12-27T23:15:29Z</time>
      </trkpt>
      <trkpt lat="36.586940" lon="-110.471930">
        <ele>1969.349</ele>
        <time>2018-12-27T23:15:49Z</time>
      </trkpt>
      <trkpt lat="36.586270" lon="-110.471880">
        <ele>1970.698</ele>
        <time>2018-12-27T23:16:09Z</time>
      </trkpt>
      <trkpt lat="36.585440" lon="-110.471830">
        <ele>1972.097</ele>
        <time>2018-12-27T23:16:29Z</time>
      </trkpt>
      <trkpt lat="36.584780" lon="-110.471790">
        <ele>1973.123</ele>
        <time>2018-12-27T23:16:49Z</time>
      </trkpt>
      <trkpt lat="36.584240" lon="-110.471750">
        <ele>1974.225</ele>
        <time>2018-12-27T23:17:09Z</time>
      </trkpt>
      <trkpt lat="36.583870" lon="-110.471750">
        <ele>1974.808</ele>
        <time>2018-12-27T23:17:29Z</time>
      </trkpt>
      <trkpt lat="36.583520" lon="-110.471760">
        <ele>1975.562</ele>
        <time>2018-12-27T23:17:49Z</time>
      </trkpt>
      <trkpt lat="36.583050" lon="-110.471790">
        <ele>1977.090</ele>
        <time>2018-12-27T23:18:09Z</time>
      </trkpt>
      <trkpt lat="36.582470" lon="-110.471880">
        <ele>1979.425</ele>
        <time>2018-12-27T23:18:29Z</time>
      </trkpt>
      <trkpt lat="36.582010" lon="-110.471960">
        <ele>1981.066</ele>
        <time>2018-12-27T23:18:49Z</time>
      </trkpt>
      <trkpt lat="36.581830" lon="-110.472000">
        <ele>1981.651</ele>
        <time>2018-12-27T23:19:09Z</time>
      </trkpt>
      <trkpt lat="36.581650" lon="-110.472050">
        <ele>1982.119</ele>
        <time>2018-12-27T23:19:29Z</time>
      </trkpt>
      <trkpt lat="36.581470" lon="-110.472090">
        <ele>1982.731</ele>
        <time>2018-12-27T23:19:49Z</time>
      </trkpt>
      <trkpt lat="36.581290" lon="-110.472150">
        <ele>1983.180</ele>
        <time>2018-12-27T23:20:09Z</time>
      </trkpt>
      <trkpt lat="36.581000" lon="-110.472240">
        <ele>1983.938</ele>
        <time>2018-12-27T23:20:29Z</time>
      </trkpt>
      <trkpt lat="36.580570" lon="-110.472380">
        <ele>1984.770</ele>
        <time>2018-12-27T23:20:49Z</time>
      </trkpt>
      <trkpt lat="36.580370" lon="-110.472460">
        <ele>1984.917</ele>
        <time>2018-12-27T23:21:09Z</time>
      </trkpt>
      <trkpt lat="36.580240" lon="-110.472520">
        <ele>1985.008</ele>
        <time>2018-12-27T23:21:29Z</time>
      </trkpt>
      <trkpt lat="36.580080" lon="-110.472590">
        <ele>1985.226</ele>
        <time>2018-12-27T23:21:49Z</time>
      </trkpt>
      <trkpt lat="36.579850" lon="-110.472690">
        <ele>1985.614</ele>
        <time>2018-12-27T23:22:09Z</time>
      </trkpt>
      <trkpt lat="36.579650" lon="-110.472790">
        <ele>1986.189</ele>
        <time>2018-12-27T23:22:29Z</time>
      </trkpt>
      <trkpt lat="36.579490" lon="-110.472870">
        <ele>1986.510</ele>
        <time>2018-12-27T23:22:49Z</time>
      </trkpt>
      <trkpt lat="36.579300" lon="-110.472970">
        <ele>1987.045</ele>
        <time>2018-12-27T23:23:09Z</time>
      </trkpt>
      <trkpt lat="36.579130" lon="-110.473060">
        <ele>1987.493</ele>
        <time>2018-12-27T23:23:29Z</time>
      </trkpt>
      <trkpt lat="36.578910" lon="-110.473200">
        <ele>1987.945</ele>
        <time>2018-12-27T23:23:49Z</time>
      </trkpt>
      <trkpt lat="36.578740" lon="-110.473300">
        <ele>1988.344</ele>
        <time>2018-12-27T23:24:09Z</time>
      </trkpt>
      <trkpt lat="36.578500" lon="-110.473460">
        <ele>1988.436</ele>
        <time>2018-12-27T23:24:29Z</time>
      </trkpt>
      <trkpt lat="36.578280" lon="-110.473600">
        <ele>1988.517</ele>
        <time>2018-12-27T23:24:49Z</time>
      </trkpt>
      <trkpt lat="36.578070" lon="-110.473750">
        <ele>1988.318</ele>
        <time>2018-12-27T23:25:09Z</time>
      </trkpt>
      <trkpt lat="36.577830" lon="-110.473930">
        <ele>1987.808</ele>
        <time>2018-12-27T23:25:29Z</time>
      </trkpt>
      <trkpt lat="36.577640" lon="-110.474080">
        <ele>1987.236</ele>
        <time>2018-12-27T23:25:49Z</time>
      </trkpt>
      <trkpt lat="36.577390" lon="-110.474290">
        <ele>1986.194</ele>
        <time>2018-12-27T23:26:09Z</time>
      </trkpt>
      <trkpt lat="36.576910" lon="-110.474710">
        <ele>1986.089</ele>
        <time>2018-12-27T23:26:29Z</time>
      </trkpt>
      <trkpt lat="36.575320" lon="-110.476130">
        <ele>1986.790</ele>
        <time>2018-12-27T23:26:49Z</time>
      </trkpt>
      <trkpt lat="36.574850" lon="-110.476550">
        <ele>1987.755</ele>
        <time>2018-12-27T23:27:09Z</time>
      </trkpt>
      <trkpt lat="36.574450" lon="-110.476900">
        <ele>1988.983</ele>
        <time>2018-12-27T23:27:29Z</time>
      </trkpt>
      <trkpt lat="36.574020" lon="-110.477280">
        <ele>1990.845</ele>
        <time>2018-12-27T23:27:49Z</time>
      </trkpt>
      <trkpt lat="36.573450" lon="-110.477800">
        <ele>1992.614</ele>
        <time>2018-12-27T23:28:09Z</time>
      </trkpt>
      <trkpt lat="36.572830" lon="-110.478360">
        <ele>1995.462</ele>
        <time>2018-12-27T23:28:29Z</time>
      </trkpt>
      <trkpt lat="36.572550" lon="-110.478610">
        <ele>1996.283</ele>
        <time>2018-12-27T23:28:49Z</time>
      </trkpt>
      <trkpt lat="36.572380" lon="-110.478780">
        <ele>1997.011</ele>
        <time>2018-12-27T23:29:09Z</time>
      </trkpt>
      <trkpt lat="36.572200" lon="-110.478960">
        <ele>1997.508</ele>
        <time>2018-12-27T23:29:29Z</time>
      </trkpt>
      <trkpt lat="36.572060" lon="-110.479110">
        <ele>1997.989</ele>
        <time>2018-12-27T23:29:49Z</time>
      </trkpt>
      <trkpt lat="36.571930" lon="-110.479250">
        <ele>1997.957</ele>
        <time>2018-12-27T23:30:09Z</time>
      </trkpt>
      <trkpt lat="36.571790" lon="-110.479410">
        <ele>1998.342</ele>
        <time>2018-12-27T23:30:29Z</time>
      </trkpt>
      <trkpt lat="36.571630" lon="-110.479610">
        <ele>1998.483</ele>
        <time>2018-12-27T23:30:49Z</time>
      </trkpt>
      <trkpt lat="36.571400" lon="-110.479890">
        <ele>1999.058</ele>
        <time>2018-12-27T23:31:09Z</time>
      </trkpt>
      <trkpt lat="36.571110" lon="-110.480290">
        <ele>1999.946</ele>
        <time>2018-12-27T23:31:29Z</time>
      </trkpt>
      <trkpt lat="36.570920" lon="-110.480590">
        <ele>2000.188</ele>
        <time>2018-12-27T23:31:49Z</time>
      </trkpt>
      <trkpt lat="36.570750" lon="-110.480860">
        <ele>2000.347</ele>
        <time>2018-12-27T23:32:09Z</time>
      </trkpt>
      <trkpt lat="36.570590" lon="-110.481120">
        <ele>2000.661</ele>
        <time>2018-12-27T23:32:29Z</time>
      </trkpt>
      <trkpt lat="36.570390" lon="-110.481460">
        <ele>2001.221</ele>
        <time>2018-12-27T23:32:49Z</time>
      </trkpt>
      <trkpt lat="36.570110" lon="-110.481990">
        <ele>2001.313</ele>
        <time>2018-12-27T23:33:09Z</time>
      </trkpt>
      <trkpt lat="36.570010" lon="-110.482210">
        <ele>2001.108</ele>
        <time>2018-12-27T23:33:29Z</time>
      </trkpt>
      <trkpt lat="36.569910" lon="-110.482410">
        <ele>2001.799</ele>
        <time>2018-12-27T23:33:49Z</time>
      </trkpt>
      <trkpt lat="36.569810" lon="-110.482650">
        <ele>2001.867</ele>
        <time>2018-12-27T23:34:09Z</time>
      </trkpt>
      <trkpt lat="36.569690" lon="-110.482920">
        <ele>2001.982</ele>
        <time>2018-12-27T23:34:29Z</time>
      </trkpt>
      <trkpt lat="36.569440" lon="-110.483490">
        <ele>2002.653</ele>
        <time>2018-12-27T23:34:49Z</time>
      </trkpt>
      <trkpt lat="36.569250" lon="-110.483930">
        <ele>2003.658</ele>
        <time>2018-12-27T23:35:09Z</time>
      </trkpt>
      <trkpt lat="36.569040" lon="-110.484410">
        <ele>2005.186</ele>
        <time>2018-12-27T23:35:29Z</time>
      </trkpt>
      <trkpt lat="36.568630" lon="-110.485350">
        <ele>2006.058</ele>
        <time>2018-12-27T23:35:49Z</time>
      </trkpt>
      <trkpt lat="36.568400" lon="-110.485890">
        <ele>2007.057</ele>
        <time>2018-12-27T23:36:09Z</time>
      </trkpt>
      <trkpt lat="36.568300" lon="-110.486120">
        <ele>2007.544</ele>
        <time>2018-12-27T23:36:29Z</time>
      </trkpt>
      <trkpt lat="36.568140" lon="-110.486490">
        <ele>2008.305</ele>
        <time>2018-12-27T23:36:49Z</time>
      </trkpt>
      <trkpt lat="36.567940" lon="-110.486920">
        <ele>2009.515</ele>
        <time>2018-12-27T23:37:09Z</time>
      </trkpt>
      <trkpt lat="36.567630" lon="-110.487640">
        <ele>2010.908</ele>
        <time>2018-12-27T23:37:29Z</time>
      </trkpt>
      <trkpt lat="36.567160" lon="-110.488720">
        <ele>2011.667</ele>
        <time>2018-12-27T23:37:49Z</time>
      </trkpt>
      <trkpt lat="36.566530" lon="-110.490170">
        <ele>2012.795</ele>
        <time>2018-12-27T23:38:09Z</time>
      </trkpt>
      <trkpt lat="36.566370" lon="-110.490550">
        <ele>2012.060</ele>
        <time>2018-12-27T23:38:29Z</time>
      </trkpt>
      <trkpt lat="36.566080" lon="-110.491220">
        <ele>2012.791</ele>
        <time>2018-12-27T23:38:49Z</time>
      </trkpt>
      <trkpt lat="36.565700" lon="-110.492100">
        <ele>2013.746</ele>
        <time>2018-12-27T23:39:09Z</time>
      </trkpt>
      <trkpt lat="36.565260" lon="-110.493120">
        <ele>2015.664</ele>
        <time>2018-12-27T23:39:29Z</time>
      </trkpt>
      <trkpt lat="36.565030" lon="-110.493630">
        <ele>2017.276</ele>
        <time>2018-12-27T23:39:49Z</time>
      </trkpt>
      <trkpt lat="36.564710" lon="-110.494370">
        <ele>2018.595</ele>
        <time>2018-12-27T23:40:09Z</time>
      </trkpt>
      <trkpt lat="36.564480" lon="-110.494900">
        <ele>2019.674</ele>
        <time>2018-12-27T23:40:29Z</time>
      </trkpt>
      <trkpt lat="36.564170" lon="-110.495600">
        <ele>2023.456</ele>
        <time>2018-12-27T23:40:49Z</time>
      </trkpt>
      <trkpt lat="36.563960" lon="-110.496110">
        <ele>2024.321</ele>
        <time>2018-12-27T23:41:09Z</time>
      </trkpt>
      <trkpt lat="36.563820" lon="-110.496420">
        <ele>2025.908</ele>
        <time>2018-12-27T23:41:29Z</time>
      </trkpt>
      <trkpt lat="36.563720" lon="-110.496650">
        <ele>2024.770</ele>
        <time>2018-12-27T23:41:49Z</time>
      </trkpt>
      <trkpt lat="36.562120" lon="-110.500330">
        <ele>2037.628</ele>
        <time>2018-12-27T23:42:09Z</time>
      </trkpt>
      <trkpt lat="36.561820" lon="-110.501010">
        <ele>2038.063</ele>
        <time>2018-12-27T23:42:29Z</time>
      </trkpt>
      <trkpt lat="36.561370" lon="-110.502060">
        <ele>2037.554</ele>
        <time>2018-12-27T23:42:49Z</time>
      </trkpt>
      <trkpt lat="36.561110" lon="-110.502660">
        <ele>2036.269</ele>
        <time>2018-12-27T23:43:09Z</time>
      </trkpt>
      <trkpt lat="36.560900" lon="-110.503130">
        <ele>2035.837</ele>
        <time>2018-12-27T23:43:29Z</time>
      </trkpt>
      <trkpt lat="36.560760" lon="-110.503440">
        <ele>2035.419</ele>
        <time>2018-12-27T23:43:49Z</time>
      </trkpt>
      <trkpt lat="36.560670" lon="-110.503650">
        <ele>2035.238</ele>
        <time>2018-12-27T23:44:09Z</time>
      </trkpt>
      <trkpt lat="36.560580" lon="-110.503860">
        <ele>2034.815</ele>
        <time>2018-12-27T23:44:29Z</time>
      </trkpt>
      <trkpt lat="36.560450" lon="-110.504170">
        <ele>2034.665</ele>
        <time>2018-12-27T23:44:49Z</time>
      </trkpt>
      <trkpt lat="36.560150" lon="-110.504870">
        <ele>2034.311</ele>
        <time>2018-12-27T23:45:09Z</time>
      </trkpt>
      <trkpt lat="36.559790" lon="-110.505680">
        <ele>2033.408</ele>
        <time>2018-12-27T23:45:29Z</time>
      </trkpt>
      <trkpt lat="36.559530" lon="-110.506290">
        <ele>2033.164</ele>
        <time>2018-12-27T23:45:49Z</time>
      </trkpt>
      <trkpt lat="36.558720" lon="-110.508140">
        <ele>2031.732</ele>
        <time>2018-12-27T23:46:09Z</time>
      </trkpt>
      <trkpt lat="36.558170" lon="-110.509410">
        <ele>2030.337</ele>
        <time>2018-12-27T23:46:29Z</time>
      </trkpt>
      <trkpt lat="36.558010" lon="-110.509790">
        <ele>2029.358</ele>
        <time>2018-12-27T23:46:49Z</time>
      </trkpt>
      <trkpt lat="36.557400" lon="-110.511170">
        <ele>2027.043</ele>
        <time>2018-12-27T23:47:09Z</time>
      </trkpt>
      <trkpt lat="36.557150" lon="-110.511750">
        <ele>2026.261</ele>
        <time>2018-12-27T23:47:29Z</time>
      </trkpt>
      <trkpt lat="36.556710" lon="-110.512770">
        <ele>2024.543</ele>
        <time>2018-12-27T23:47:49Z</time>
      </trkpt>
      <trkpt lat="36.556320" lon="-110.513670">
        <ele>2024.282</ele>
        <time>2018-12-27T23:48:09Z</time>
      </trkpt>
      <trkpt lat="36.555840" lon="-110.514780">
        <ele>2023.391</ele>
        <time>2018-12-27T23:48:29Z</time>
      </trkpt>
      <trkpt lat="36.554540" lon="-110.517750">
        <ele>2022.481</ele>
        <time>2018-12-27T23:48:49Z</time>
      </trkpt>
      <trkpt lat="36.553420" lon="-110.520330">
        <ele>2020.119</ele>
        <time>2018-12-27T23:49:09Z</time>
      </trkpt>
      <trkpt lat="36.552890" lon="-110.521530">
        <ele>2021.408</ele>
        <time>2018-12-27T23:49:29Z</time>
      </trkpt>
      <trkpt lat="36.552510" lon="-110.522430">
        <ele>2021.572</ele>
        <time>2018-12-27T23:49:49Z</time>
      </trkpt>
      <trkpt lat="36.552080" lon="-110.523400">
        <ele>2020.970</ele>
        <time>2018-12-27T23:50:09Z</time>
      </trkpt>
      <trkpt lat="36.551740" lon="-110.524190">
        <ele>2020.065</ele>
        <time>2018-12-27T23:50:29Z</time>
      </trkpt>
      <trkpt lat="36.551650" lon="-110.524400">
        <ele>2019.836</ele>
        <time>2018-12-27T23:50:49Z</time>
      </trkpt>
      <trkpt lat="36.551480" lon="-110.524790">
        <ele>2019.551</ele>
        <time>2018-12-27T23:51:09Z</time>
      </trkpt>
      <trkpt lat="36.551010" lon="-110.525880">
        <ele>2018.419</ele>
        <time>2018-12-27T23:51:29Z</time>
      </trkpt>
      <trkpt lat="36.549690" lon="-110.528890">
        <ele>2014.371</ele>
        <time>2018-12-27T23:51:49Z</time>
      </trkpt>
      <trkpt lat="36.548810" lon="-110.530940">
        <ele>2011.650</ele>
        <time>2018-12-27T23:52:09Z</time>
      </trkpt>
      <trkpt lat="36.548500" lon="-110.531630">
        <ele>2010.593</ele>
        <time>2018-12-27T23:52:29Z</time>
      </trkpt>
      <trkpt lat="36.547880" lon="-110.533070">
        <ele>2006.565</ele>
        <time>2018-12-27T23:52:49Z</time>
      </trkpt>
      <trkpt lat="36.547840" lon="-110.533150">
        <ele>2006.521</ele>
        <time>2018-12-27T23:53:09Z</time>
      </trkpt>
      <trkpt lat="36.547180" lon="-110.534680">
        <ele>2006.308</ele>
        <time>2018-12-27T23:53:29Z</time>
      </trkpt>
      <trkpt lat="36.546890" lon="-110.535330">
        <ele>2005.052</ele>
        <time>2018-12-27T23:53:49Z</time>
      </trkpt>
      <trkpt lat="36.544800" lon="-110.540150">
        <ele>2003.350</ele>
        <time>2018-12-27T23:54:09Z</time>
      </trkpt>
      <trkpt lat="36.544480" lon="-110.540880">
        <ele>2001.685</ele>
        <time>2018-12-27T23:54:29Z</time>
      </trkpt>
      <trkpt lat="36.543960" lon="-110.542070">
        <ele>2000.486</ele>
        <time>2018-12-27T23:54:49Z</time>
      </trkpt>
      <trkpt lat="36.543690" lon="-110.542710">
        <ele>1998.771</ele>
        <time>2018-12-27T23:55:09Z</time>
      </trkpt>
      <trkpt lat="36.543460" lon="-110.543220">
        <ele>1997.429</ele>
        <time>2018-12-27T23:55:29Z</time>
      </trkpt>
      <trkpt lat="36.543290" lon="-110.543610">
        <ele>1996.571</ele>
        <time>2018-12-27T23:55:49Z</time>
      </trkpt>
      <trkpt lat="36.543040" lon="-110.544160">
        <ele>1995.960</ele>
        <time>2018-12-27T23:56:09Z</time>
      </trkpt>
      <trkpt lat="36.543000" lon="-110.544240">
        <ele>1995.883</ele>
        <time>2018-12-27T23:56:29Z</time>
      </trkpt>
      <trkpt lat="36.542960" lon="-110.544320">
        <ele>1995.725</ele>
        <time>2018-12-27T23:56:49Z</time>
      </trkpt>
      <trkpt lat="36.542740" lon="-110.544750">
        <ele>1995.217</ele>
        <time>2018-12-27T23:57:09Z</time>
      </trkpt>
      <trkpt lat="36.542630" lon="-110.544980">
        <ele>1995.308</ele>
        <time>2018-12-27T23:57:29Z</time>
      </trkpt>
      <trkpt lat="36.542370" lon="-110.545460">
        <ele>1994.971</ele>
        <time>2018-12-27T23:57:49Z</time>
      </trkpt>
      <trkpt lat="36.541690" lon="-110.546770">
        <ele>1993.159</ele>
        <time>2018-12-27T23:58:09Z</time>
      </trkpt>
      <trkpt lat="36.540890" lon="-110.548310">
        <ele>1994.474</ele>
        <time>2018-12-27T23:58:29Z</time>
      </trkpt>
      <trkpt lat="36.540490" lon="-110.549090">
        <ele>1994.115</ele>
        <time>2018-12-27T23:58:49Z</time>
      </trkpt>
      <trkpt lat="36.540160" lon="-110.549720">
        <ele>1992.280</ele>
        <time>2018-12-27T23:59:09Z</time>
      </trkpt>
      <trkpt lat="36.539650" lon="-110.550690">
        <ele>1993.298</ele>
        <time>2018-12-27T23:59:29Z</time>
      </trkpt>
      <trkpt lat="36.539430" lon="-110.551120">
        <ele>1993.580</ele>
        <time>2018-12-27T23:59:49Z</time>
      </trkpt>
      <trkpt lat="36.539060" lon="-110.551820">
        <ele>1993.949</ele>
        <time>2018-12-28T00:00:09Z</time>
      </trkpt>
      <trkpt lat="36.538500" lon="-110.552890">
        <ele>1989.183</ele>
        <time>2018-12-28T00:00:29Z</time>
      </trkpt>
      <trkpt lat="36.538010" lon="-110.553830">
        <ele>1984.625</ele>
        <time>2018-12-28T00:00:49Z</time>
      </trkpt>
      <trkpt lat="36.537990" lon="-110.553860">
        <ele>1984.517</ele>
        <time>2018-12-28T00:01:09Z</time>
      </trkpt>
      <trkpt lat="36.536540" lon="-110.556650">
        <ele>1980.808</ele>
        <time>2018-12-28T00:01:29Z</time>
      </trkpt>
      <trkpt lat="36.535940" lon="-110.557800">
        <ele>1980.641</ele>
        <time>2018-12-28T00:01:49Z</time>
      </trkpt>
      <trkpt lat="36.534960" lon="-110.559690">
        <ele>1980.559</ele>
        <time>2018-12-28T00:02:09Z</time>
      </trkpt>
      <trkpt lat="36.534380" lon="-110.560790">
        <ele>1980.454</ele>
        <time>2018-12-28T00:02:29Z</time>
      </trkpt>
      <trkpt lat="36.534250" lon="-110.561050">
        <ele>1980.535</ele>
        <time>2018-12-28T00:02:49Z</time>
      </trkpt>
      <trkpt lat="36.534110" lon="-110.561310">
        <ele>1980.530</ele>
        <time>2018-12-28T00:03:09Z</time>
      </trkpt>
      <trkpt lat="36.533730" lon="-110.562040">
        <ele>1980.348</ele>
        <time>2018-12-28T00:03:29Z</time>
      </trkpt>
      <trkpt lat="36.533560" lon="-110.562370">
        <ele>1980.250</ele>
        <time>2018-12-28T00:03:49Z</time>
      </trkpt>
      <trkpt lat="36.533460" lon="-110.562560">
        <ele>1980.289</ele>
        <time>2018-12-28T00:04:09Z</time>
      </trkpt>
      <trkpt lat="36.533280" lon="-110.562910">
        <ele>1980.333</ele>
        <time>2018-12-28T00:04:29Z</time>
      </trkpt>
      <trkpt lat="36.532860" lon="-110.563700">
        <ele>1980.623</ele>
        <time>2018-12-28T00:04:49Z</time>
      </trkpt>
      <trkpt lat="36.531930" lon="-110.565490">
        <ele>1980.815</ele>
        <time>2018-12-28T00:05:09Z</time>
      </trkpt>
      <trkpt lat="36.531660" lon="-110.565970">
        <ele>1980.908</ele>
        <time>2018-12-28T00:05:29Z</time>
      </trkpt>
      <trkpt lat="36.531210" lon="-110.566860">
        <ele>1980.816</ele>
        <time>2018-12-28T00:05:49Z</time>
      </trkpt>
      <trkpt lat="36.530870" lon="-110.567490">
        <ele>1980.544</ele>
        <time>2018-12-28T00:06:09Z</time>
      </trkpt>
      <trkpt lat="36.530490" lon="-110.568230">
        <ele>1980.059</ele>
        <time>2018-12-28T00:06:29Z</time>
      </trkpt>
      <trkpt lat="36.530390" lon="-110.568410">
        <ele>1980.030</ele>
        <time>2018-12-28T00:06:49Z</time>
      </trkpt>
      <trkpt lat="36.530330" lon="-110.568540">
        <ele>1979.995</ele>
        <time>2018-12-28T00:07:09Z</time>
      </trkpt>
      <trkpt lat="36.530160" lon="-110.568870">
        <ele>1980.043</ele>
        <time>2018-12-28T00:07:29Z</time>
      </trkpt>
      <trkpt lat="36.530100" lon="-110.568990">
        <ele>1980.195</ele>
        <time>2018-12-28T00:07:49Z</time>
      </trkpt>
      <trkpt lat="36.529830" lon="-110.569490">
        <ele>1980.214</ele>
        <time>2018-12-28T00:08:09Z</time>
      </trkpt>
      <trkpt lat="36.529520" lon="-110.570100">
        <ele>1980.316</ele>
        <time>2018-12-28T00:08:29Z</time>
      </trkpt>
      <trkpt lat="36.529260" lon="-110.570590">
        <ele>1980.276</ele>
        <time>2018-12-28T00:08:49Z</time>
      </trkpt>
      <trkpt lat="36.528770" lon="-110.571510">
        <ele>1979.313</ele>
        <time>2018-12-28T00:09:09Z</time>
      </trkpt>
      <trkpt lat="36.528400" lon="-110.572190">
        <ele>1978.308</ele>
        <time>2018-12-28T00:09:29Z</time>
      </trkpt>
      <trkpt lat="36.528030" lon="-110.572910">
        <ele>1977.164</ele>
        <time>2018-12-28T00:09:49Z</time>
      </trkpt>
      <trkpt lat="36.527950" lon="-110.573050">
        <ele>1976.992</ele>
        <time>2018-12-28T00:10:09Z</time>
      </trkpt>
      <trkpt lat="36.527800" lon="-110.573320">
        <ele>1976.427</ele>
        <time>2018-12-28T00:10:29Z</time>
      </trkpt>
      <trkpt lat="36.527580" lon="-110.573730">
        <ele>1976.238</ele>
        <time>2018-12-28T00:10:49Z</time>
      </trkpt>
      <trkpt lat="36.526610" lon="-110.575550">
        <ele>1972.083</ele>
        <time>2018-12-28T00:11:09Z</time>
      </trkpt>
      <trkpt lat="36.526070" lon="-110.576580">
        <ele>1971.631</ele>
        <time>2018-12-28T00:11:29Z</time>
      </trkpt>
      <trkpt lat="36.525840" lon="-110.577010">
        <ele>1971.753</ele>
        <time>2018-12-28T00:11:49Z</time>
      </trkpt>
      <trkpt lat="36.525530" lon="-110.577580">
        <ele>1972.262</ele>
        <time>2018-12-28T00:12:09Z</time>
      </trkpt>
      <trkpt lat="36.524830" lon="-110.578910">
        <ele>1972.157</ele>
        <time>2018-12-28T00:12:29Z</time>
      </trkpt>
      <trkpt lat="36.524450" lon="-110.579600">
        <ele>1971.200</ele>
        <time>2018-12-28T00:12:49Z</time>
      </trkpt>
      <trkpt lat="36.524330" lon="-110.579830">
        <ele>1970.720</ele>
        <time>2018-12-28T00:13:09Z</time>
      </trkpt>
      <trkpt lat="36.523960" lon="-110.580530">
        <ele>1968.308</ele>
        <time>2018-12-28T00:13:29Z</time>
      </trkpt>
      <trkpt lat="36.523570" lon="-110.581270">
        <ele>1964.738</ele>
        <time>2018-12-28T00:13:49Z</time>
      </trkpt>
      <trkpt lat="36.523000" lon="-110.582340">
        <ele>1964.646</ele>
        <time>2018-12-28T00:14:09Z</time>
      </trkpt>
      <trkpt lat="36.522620" lon="-110.583060">
        <ele>1964.391</ele>
        <time>2018-12-28T00:14:29Z</time>
      </trkpt>
      <trkpt lat="36.522070" lon="-110.584080">
        <ele>1964.442</ele>
        <time>2018-12-28T00:14:49Z</time>
      </trkpt>
      <trkpt lat="36.521680" lon="-110.584830">
        <ele>1964.467</ele>
        <time>2018-12-28T00:15:09Z</time>
      </trkpt>
      <trkpt lat="36.520520" lon="-110.587000">
        <ele>1965.025</ele>
        <time>2018-12-28T00:15:29Z</time>
      </trkpt>
      <trkpt lat="36.519630" lon="-110.588660">
        <ele>1965.687</ele>
        <time>2018-12-28T00:15:49Z</time>
      </trkpt>
      <trkpt lat="36.519120" lon="-110.589620">
        <ele>1964.816</ele>
        <time>2018-12-28T00:16:09Z</time>
      </trkpt>
      <trkpt lat="36.518460" lon="-110.590860">
        <ele>1962.383</ele>
        <time>2018-12-28T00:16:29Z</time>
      </trkpt>
      <trkpt lat="36.518100" lon="-110.591520">
        <ele>1960.825</ele>
        <time>2018-12-28T00:16:49Z</time>
      </trkpt>
      <trkpt lat="36.517880" lon="-110.591920">
        <ele>1959.817</ele>
        <time>2018-12-28T00:17:09Z</time>
      </trkpt>
      <trkpt lat="36.517720" lon="-110.592190">
        <ele>1959.308</ele>
        <time>2018-12-28T00:17:29Z</time>
      </trkpt>
      <trkpt lat="36.517650" lon="-110.592300">
        <ele>1959.241</ele>
        <time>2018-12-28T00:17:49Z</time>
      </trkpt>
      <trkpt lat="36.517470" lon="-110.592590">
        <ele>1958.439</ele>
        <time>2018-12-28T00:18:09Z</time>
      </trkpt>
      <trkpt lat="36.516720" lon="-110.593700">
        <ele>1956.754</ele>
        <time>2018-12-28T00:18:29Z</time>
      </trkpt>
      <trkpt lat="36.516170" lon="-110.594530">
        <ele>1955.945</ele>
        <time>2018-12-28T00:18:49Z</time>
      </trkpt>
      <trkpt lat="36.515600" lon="-110.595370">
        <ele>1954.920</ele>
        <time>2018-12-28T00:19:09Z</time>
      </trkpt>
      <trkpt lat="36.515170" lon="-110.596020">
        <ele>1953.888</ele>
        <time>2018-12-28T00:19:29Z</time>
      </trkpt>
      <trkpt lat="36.514930" lon="-110.596390">
        <ele>1954.510</ele>
        <time>2018-12-28T00:19:49Z</time>
      </trkpt>
      <trkpt lat="36.514510" lon="-110.597000">
        <ele>1955.369</ele>
        <time>2018-12-28T00:20:09Z</time>
      </trkpt>
      <trkpt lat="36.514250" lon="-110.597380">
        <ele>1955.851</ele>
        <time>2018-12-28T00:20:29Z</time>
      </trkpt>
      <trkpt lat="36.512740" lon="-110.599640">
        <ele>1956.301</ele>
        <time>2018-12-28T00:20:49Z</time>
      </trkpt>
      <trkpt lat="36.512270" lon="-110.600320">
        <ele>1955.911</ele>
        <time>2018-12-28T00:21:09Z</time>
      </trkpt>
      <trkpt lat="36.508990" lon="-110.605210">
        <ele>1951.608</ele>
        <time>2018-12-28T00:21:29Z</time>
      </trkpt>
      <trkpt lat="36.508650" lon="-110.605720">
        <ele>1951.468</ele>
        <time>2018-12-28T00:21:49Z</time>
      </trkpt>
      <trkpt lat="36.508380" lon="-110.606110">
        <ele>1951.586</ele>
        <time>2018-12-28T00:22:09Z</time>
      </trkpt>
      <trkpt lat="36.507880" lon="-110.606850">
        <ele>1951.291</ele>
        <time>2018-12-28T00:22:29Z</time>
      </trkpt>
      <trkpt lat="36.507490" lon="-110.607450">
        <ele>1946.212</ele>
        <time>2018-12-28T00:22:49Z</time>
      </trkpt>
      <trkpt lat="36.506460" lon="-110.608960">
        <ele>1948.037</ele>
        <time>2018-12-28T00:23:09Z</time>
      </trkpt>
      <trkpt lat="36.505330" lon="-110.610670">
        <ele>1943.955</ele>
        <time>2018-12-28T00:23:29Z</time>
      </trkpt>
      <trkpt lat="36.504940" lon="-110.611250">
        <ele>1941.317</ele>
        <time>2018-12-28T00:23:49Z</time>
      </trkpt>
      <trkpt lat="36.503750" lon="-110.613020">
        <ele>1942.996</ele>
        <time>2018-12-28T00:24:09Z</time>
      </trkpt>
      <trkpt lat="36.503080" lon="-110.614010">
        <ele>1941.085</ele>
        <time>2018-12-28T00:24:29Z</time>
      </trkpt>
      <trkpt lat="36.500800" lon="-110.617410">
        <ele>1940.689</ele>
        <time>2018-12-28T00:24:49Z</time>
      </trkpt>
      <trkpt lat="36.500040" lon="-110.618530">
        <ele>1939.017</ele>
        <time>2018-12-28T00:25:09Z</time>
      </trkpt>
      <trkpt lat="36.499560" lon="-110.619260">
        <ele>1937.608</ele>
        <time>2018-12-28T00:25:29Z</time>
      </trkpt>
      <trkpt lat="36.499270" lon="-110.619700">
        <ele>1936.661</ele>
        <time>2018-12-28T00:25:49Z</time>
      </trkpt>
      <trkpt lat="36.499110" lon="-110.619920">
        <ele>1937.029</ele>
        <time>2018-12-28T00:26:09Z</time>
      </trkpt>
      <trkpt lat="36.499010" lon="-110.620070">
        <ele>1937.444</ele>
        <time>2018-12-28T00:26:29Z</time>
      </trkpt>
      <trkpt lat="36.498480" lon="-110.620880">
        <ele>1939.515</ele>
        <time>2018-12-28T00:26:49Z</time>
      </trkpt>
      <trkpt lat="36.498230" lon="-110.621240">
        <ele>1939.510</ele>
        <time>2018-12-28T00:27:09Z</time>
      </trkpt>
      <trkpt lat="36.497170" lon="-110.622840">
        <ele>1938.668</ele>
        <time>2018-12-28T00:27:29Z</time>
      </trkpt>
      <trkpt lat="36.496510" lon="-110.623810">
        <ele>1938.250</ele>
        <time>2018-12-28T00:27:49Z</time>
      </trkpt>
      <trkpt lat="36.496210" lon="-110.624270">
        <ele>1937.789</ele>
        <time>2018-12-28T00:28:09Z</time>
      </trkpt>
      <trkpt lat="36.496030" lon="-110.624520">
        <ele>1935.224</ele>
        <time>2018-12-28T00:28:29Z</time>
      </trkpt>
      <trkpt lat="36.495120" lon="-110.625880">
        <ele>1930.204</ele>
        <time>2018-12-28T00:28:49Z</time>
      </trkpt>
      <trkpt lat="36.494770" lon="-110.626390">
        <ele>1929.114</ele>
        <time>2018-12-28T00:29:09Z</time>
      </trkpt>
      <trkpt lat="36.494570" lon="-110.626690">
        <ele>1929.408</ele>
        <time>2018-12-28T00:29:29Z</time>
      </trkpt>
      <trkpt lat="36.494250" lon="-110.627170">
        <ele>1932.245</ele>
        <time>2018-12-28T00:29:49Z</time>
      </trkpt>
      <trkpt lat="36.493660" lon="-110.628050">
        <ele>1933.753</ele>
        <time>2018-12-28T00:30:09Z</time>
      </trkpt>
      <trkpt lat="36.493430" lon="-110.628400">
        <ele>1933.748</ele>
        <time>2018-12-28T00:30:29Z</time>
      </trkpt>
      <trkpt lat="36.492990" lon="-110.629040">
        <ele>1932.659</ele>
        <time>2018-12-28T00:30:49Z</time>
      </trkpt>
      <trkpt lat="36.492590" lon="-110.629650">
        <ele>1929.884</ele>
        <time>2018-12-28T00:31:09Z</time>
      </trkpt>
      <trkpt lat="36.491690" lon="-110.630990">
        <ele>1932.782</ele>
        <time>2018-12-28T00:31:29Z</time>
      </trkpt>
      <trkpt lat="36.491280" lon="-110.631600">
        <ele>1933.354</ele>
        <time>2018-12-28T00:31:49Z</time>
      </trkpt>
      <trkpt lat="36.490290" lon="-110.633080">
        <ele>1932.283</ele>
        <time>2018-12-28T00:32:09Z</time>
      </trkpt>
      <trkpt lat="36.489890" lon="-110.633670">
        <ele>1930.498</ele>
        <time>2018-12-28T00:32:29Z</time>
      </trkpt>
      <trkpt lat="36.489650" lon="-110.634040">
        <ele>1927.615</ele>
        <time>2018-12-28T00:32:49Z</time>
      </trkpt>
      <trkpt lat="36.489360" lon="-110.634510">
        <ele>1927.126</ele>
        <time>2018-12-28T00:33:09Z</time>
      </trkpt>
      <trkpt lat="36.489110" lon="-110.634910">
        <ele>1926.208</ele>
        <time>2018-12-28T00:33:29Z</time>
      </trkpt>
      <trkpt lat="36.488370" lon="-110.636130">
        <ele>1925.582</ele>
        <time>2018-12-28T00:33:49Z</time>
      </trkpt>
      <trkpt lat="36.487730" lon="-110.637160">
        <ele>1925.210</ele>
        <time>2018-12-28T00:34:09Z</time>
      </trkpt>
      <trkpt lat="36.487560" lon="-110.637420">
        <ele>1925.355</ele>
        <time>2018-12-28T00:34:29Z</time>
      </trkpt>
      <trkpt lat="36.487110" lon="-110.638130">
        <ele>1924.966</ele>
        <time>2018-12-28T00:34:49Z</time>
      </trkpt>
      <trkpt lat="36.486510" lon="-110.639100">
        <ele>1923.721</ele>
        <time>2018-12-28T00:35:09Z</time>
      </trkpt>
      <trkpt lat="36.486320" lon="-110.639420">
        <ele>1923.549</ele>
        <time>2018-12-28T00:35:29Z</time>
      </trkpt>
      <trkpt lat="36.485270" lon="-110.641100">
        <ele>1921.781</ele>
        <time>2018-12-28T00:35:49Z</time>
      </trkpt>
      <trkpt lat="36.484500" lon="-110.642360">
        <ele>1921.220</ele>
        <time>2018-12-28T00:36:09Z</time>
      </trkpt>
      <trkpt lat="36.483830" lon="-110.643430">
        <ele>1919.721</ele>
        <time>2018-12-28T00:36:29Z</time>
      </trkpt>
      <trkpt lat="36.483510" lon="-110.643940">
        <ele>1919.041</ele>
        <time>2018-12-28T00:36:49Z</time>
      </trkpt>
      <trkpt lat="36.481720" lon="-110.646830">
        <ele>1915.905</ele>
        <time>2018-12-28T00:37:09Z</time>
      </trkpt>
      <trkpt lat="36.481580" lon="-110.647060">
        <ele>1916.108</ele>
        <time>2018-12-28T00:37:29Z</time>
      </trkpt>
      <trkpt lat="36.481280" lon="-110.647550">
        <ele>1915.355</ele>
        <time>2018-12-28T00:37:49Z</time>
      </trkpt>
      <trkpt lat="36.480720" lon="-110.648420">
        <ele>1915.223</ele>
        <time>2018-12-28T00:38:09Z</time>
      </trkpt>
      <trkpt lat="36.480050" lon="-110.649490">
        <ele>1914.748</ele>
        <time>2018-12-28T00:38:29Z</time>
      </trkpt>
      <trkpt lat="36.479570" lon="-110.650290">
        <ele>1914.289</ele>
        <time>2018-12-28T00:38:49Z</time>
      </trkpt>
      <trkpt lat="36.479240" lon="-110.650810">
        <ele>1914.744</ele>
        <time>2018-12-28T00:39:09Z</time>
      </trkpt>
      <trkpt lat="36.478950" lon="-110.651270">
        <ele>1914.612</ele>
        <time>2018-12-28T00:39:29Z</time>
      </trkpt>
      <trkpt lat="36.478630" lon="-110.651800">
        <ele>1914.364</ele>
        <time>2018-12-28T00:39:49Z</time>
      </trkpt>
      <trkpt lat="36.478390" lon="-110.652190">
        <ele>1914.073</ele>
        <time>2018-12-28T00:40:09Z</time>
      </trkpt>
      <trkpt lat="36.478180" lon="-110.652530">
        <ele>1914.592</ele>
        <time>2018-12-28T00:40:29Z</time>
      </trkpt>
      <trkpt lat="36.477970" lon="-110.652870">
        <ele>1914.873</ele>
        <time>2018-12-28T00:40:49Z</time>
      </trkpt>
      <trkpt lat="36.477580" lon="-110.653520">
        <ele>1914.120</ele>
        <time>2018-12-28T00:41:09Z</time>
      </trkpt>
      <trkpt lat="36.477320" lon="-110.653940">
        <ele>1913.708</ele>
        <time>2018-12-28T00:41:29Z</time>
      </trkpt>
      <trkpt lat="36.477050" lon="-110.654450">
        <ele>1913.382</ele>
        <time>2018-12-28T00:41:49Z</time>
      </trkpt>
      <trkpt lat="36.476830" lon="-110.654920">
        <ele>1912.640</ele>
        <time>2018-12-28T00:42:09Z</time>
      </trkpt>
      <trkpt lat="36.476620" lon="-110.655390">
        <ele>1910.665</ele>
        <time>2018-12-28T00:42:29Z</time>
      </trkpt>
      <trkpt lat="36.476400" lon="-110.655930">
        <ele>1909.126</ele>
        <time>2018-12-28T00:42:49Z</time>
      </trkpt>
      <trkpt lat="36.476260" lon="-110.656270">
        <ele>1908.891</ele>
        <time>2018-12-28T00:43:09Z</time>
      </trkpt>
      <trkpt lat="36.476020" lon="-110.656850">
        <ele>1907.779</ele>
        <time>2018-12-28T00:43:29Z</time>
      </trkpt>
      <trkpt lat="36.475850" lon="-110.657260">
        <ele>1907.241</ele>
        <time>2018-12-28T00:43:49Z</time>
      </trkpt>
      <trkpt lat="36.475700" lon="-110.657610">
        <ele>1907.130</ele>
        <time>2018-12-28T00:44:09Z</time>
      </trkpt>
      <trkpt lat="36.475570" lon="-110.657910">
        <ele>1907.263</ele>
        <time>2018-12-28T00:44:29Z</time>
      </trkpt>
      <trkpt lat="36.475450" lon="-110.658210">
        <ele>1907.044</ele>
        <time>2018-12-28T00:44:49Z</time>
      </trkpt>
      <trkpt lat="36.475310" lon="-110.658550">
        <ele>1907.018</ele>
        <time>2018-12-28T00:45:09Z</time>
      </trkpt>
      <trkpt lat="36.475150" lon="-110.658920">
        <ele>1906.808</ele>
        <time>2018-12-28T00:45:29Z</time>
      </trkpt>
      <trkpt lat="36.475030" lon="-110.659180">
        <ele>1906.639</ele>
        <time>2018-12-28T00:45:49Z</time>
      </trkpt>
      <trkpt lat="36.474920" lon="-110.659460">
        <ele>1906.587</ele>
        <time>2018-12-28T00:46:09Z</time>
      </trkpt>
      <trkpt lat="36.474690" lon="-110.660020">
        <ele>1906.162</ele>
        <time>2018-12-28T00:46:29Z</time>
      </trkpt>
      <trkpt lat="36.474070" lon="-110.661480">
        <ele>1905.753</ele>
        <time>2018-12-28T00:46:49Z</time>
      </trkpt>
      <trkpt lat="36.473530" lon="-110.662750">
        <ele>1903.588</ele>
        <time>2018-12-28T00:47:09Z</time>
      </trkpt>
      <trkpt lat="36.472950" lon="-110.664120">
        <ele>1901.016</ele>
        <time>2018-12-28T00:47:29Z</time>
      </trkpt>
      <trkpt lat="36.472760" lon="-110.664590">
        <ele>1899.548</ele>
        <time>2018-12-28T00:47:49Z</time>
      </trkpt>
      <trkpt lat="36.472600" lon="-110.664970">
        <ele>1898.817</ele>
        <time>2018-12-28T00:48:09Z</time>
      </trkpt>
      <trkpt lat="36.472340" lon="-110.665590">
        <ele>1897.697</ele>
        <time>2018-12-28T00:48:29Z</time>
      </trkpt>
      <trkpt lat="36.472120" lon="-110.666100">
        <ele>1897.123</ele>
        <time>2018-12-28T00:48:49Z</time>
      </trkpt>
      <trkpt lat="36.471900" lon="-110.666640">
        <ele>1896.525</ele>
        <time>2018-12-28T00:49:09Z</time>
      </trkpt>
      <trkpt lat="36.471740" lon="-110.667020">
        <ele>1896.508</ele>
        <time>2018-12-28T00:49:29Z</time>
      </trkpt>
      <trkpt lat="36.471590" lon="-110.667400">
        <ele>1894.312</ele>
        <time>2018-12-28T00:49:49Z</time>
      </trkpt>
      <trkpt lat="36.471120" lon="-110.668490">
        <ele>1892.290</ele>
        <time>2018-12-28T00:50:09Z</time>
      </trkpt>
      <trkpt lat="36.470710" lon="-110.669450">
        <ele>1890.965</ele>
        <time>2018-12-28T00:50:29Z</time>
      </trkpt>
      <trkpt lat="36.470370" lon="-110.670250">
        <ele>1889.946</ele>
        <time>2018-12-28T00:50:49Z</time>
      </trkpt>
      <trkpt lat="36.470220" lon="-110.670640">
        <ele>1889.691</ele>
        <time>2018-12-28T00:51:09Z</time>
      </trkpt>
      <trkpt lat="36.470060" lon="-110.671000">
        <ele>1889.299</ele>
        <time>2018-12-28T00:51:29Z</time>
      </trkpt>
      <trkpt lat="36.469840" lon="-110.671530">
        <ele>1888.461</ele>
        <time>2018-12-28T00:51:49Z</time>
      </trkpt>
      <trkpt lat="36.469300" lon="-110.672830">
        <ele>1886.960</ele>
        <time>2018-12-28T00:52:09Z</time>
      </trkpt>
      <trkpt lat="36.468420" lon="-110.674930">
        <ele>1887.229</ele>
        <time>2018-12-28T00:52:29Z</time>
      </trkpt>
      <trkpt lat="36.468020" lon="-110.675870">
        <ele>1888.700</ele>
        <time>2018-12-28T00:52:49Z</time>
      </trkpt>
      <trkpt lat="36.467080" lon="-110.678090">
        <ele>1885.020</ele>
        <time>2018-12-28T00:53:09Z</time>
      </trkpt>
      <trkpt lat="36.466180" lon="-110.680220">
        <ele>1884.408</ele>
        <time>2018-12-28T00:53:29Z</time>
      </trkpt>
      <trkpt lat="36.465470" lon="-110.681910">
        <ele>1883.555</ele>
        <time>2018-12-28T00:53:49Z</time>
      </trkpt>
      <trkpt lat="36.464780" lon="-110.683540">
        <ele>1880.513</ele>
        <time>2018-12-28T00:54:09Z</time>
      </trkpt>
      <trkpt lat="36.464550" lon="-110.684100">
        <ele>1880.148</ele>
        <time>2018-12-28T00:54:29Z</time>
      </trkpt>
      <trkpt lat="36.464040" lon="-110.685300">
        <ele>1878.099</ele>
        <time>2018-12-28T00:54:49Z</time>
      </trkpt>
      <trkpt lat="36.463320" lon="-110.687020">
        <ele>1873.924</ele>
        <time>2018-12-28T00:55:09Z</time>
      </trkpt>
      <trkpt lat="36.462890" lon="-110.688020">
        <ele>1872.142</ele>
        <time>2018-12-28T00:55:29Z</time>
      </trkpt>
      <trkpt lat="36.462510" lon="-110.688910">
        <ele>1871.064</ele>
        <time>2018-12-28T00:55:49Z</time>
      </trkpt>
      <trkpt lat="36.462180" lon="-110.689720">
        <ele>1870.663</ele>
        <time>2018-12-28T00:56:09Z</time>
      </trkpt>
      <trkpt lat="36.461920" lon="-110.690320">
        <ele>1871.676</ele>
        <time>2018-12-28T00:56:29Z</time>
      </trkpt>
      <trkpt lat="36.461810" lon="-110.690690">
        <ele>1871.990</ele>
        <time>2018-12-28T00:56:49Z</time>
      </trkpt>
      <trkpt lat="36.461660" lon="-110.691050">
        <ele>1871.719</ele>
        <time>2018-12-28T00:57:09Z</time>
      </trkpt>
      <trkpt lat="36.461550" lon="-110.691310">
        <ele>1871.608</ele>
        <time>2018-12-28T00:57:29Z</time>
      </trkpt>
      <trkpt lat="36.461370" lon="-110.691720">
        <ele>1871.370</ele>
        <time>2018-12-28T00:57:49Z</time>
      </trkpt>
      <trkpt lat="36.461190" lon="-110.692140">
        <ele>1871.028</ele>
        <time>2018-12-28T00:58:09Z</time>
      </trkpt>
      <trkpt lat="36.460900" lon="-110.692790">
        <ele>1870.693</ele>
        <time>2018-12-28T00:58:29Z</time>
      </trkpt>
      <trkpt lat="36.460830" lon="-110.692940">
        <ele>1870.654</ele>
        <time>2018-12-28T00:58:49Z</time>
      </trkpt>
      <trkpt lat="36.460460" lon="-110.693870">
        <ele>1870.389</ele>
        <time>2018-12-28T00:59:09Z</time>
      </trkpt>
      <trkpt lat="36.460410" lon="-110.693970">
        <ele>1870.477</ele>
        <time>2018-12-28T00:59:29Z</time>
      </trkpt>
      <trkpt lat="36.460180" lon="-110.694490">
        <ele>1870.159</ele>
        <time>2018-12-28T00:59:49Z</time>
      </trkpt>
      <trkpt lat="36.460130" lon="-110.694570">
        <ele>1870.118</ele>
        <time>2018-12-28T01:00:09Z</time>
      </trkpt>
      <trkpt lat="36.460060" lon="-110.694750">
        <ele>1869.636</ele>
        <time>2018-12-28T01:00:29Z</time>
      </trkpt>
      <trkpt lat="36.459820" lon="-110.695310">
        <ele>1867.617</ele>
        <time>2018-12-28T01:00:49Z</time>
      </trkpt>
      <trkpt lat="36.459750" lon="-110.695480">
        <ele>1867.018</ele>
        <time>2018-12-28T01:01:09Z</time>
      </trkpt>
      <trkpt lat="36.458970" lon="-110.697350">
        <ele>1865.408</ele>
        <time>2018-12-28T01:01:29Z</time>
      </trkpt>
      <trkpt lat="36.458420" lon="-110.698710">
        <ele>1867.446</ele>
        <time>2018-12-28T01:01:49Z</time>
      </trkpt>
      <trkpt lat="36.457710" lon="-110.700340">
        <ele>1870.474</ele>
        <time>2018-12-28T01:02:09Z</time>
      </trkpt>
      <trkpt lat="36.457300" lon="-110.701360">
        <ele>1869.579</ele>
        <time>2018-12-28T01:02:29Z</time>
      </trkpt>
      <trkpt lat="36.456160" lon="-110.704040">
        <ele>1867.820</ele>
        <time>2018-12-28T01:02:49Z</time>
      </trkpt>
      <trkpt lat="36.455880" lon="-110.704690">
        <ele>1865.875</ele>
        <time>2018-12-28T01:03:09Z</time>
      </trkpt>
      <trkpt lat="36.455730" lon="-110.705040">
        <ele>1864.783</ele>
        <time>2018-12-28T01:03:29Z</time>
      </trkpt>
      <trkpt lat="36.455550" lon="-110.705460">
        <ele>1863.395</ele>
        <time>2018-12-28T01:03:49Z</time>
      </trkpt>
      <trkpt lat="36.455320" lon="-110.706000">
        <ele>1861.594</ele>
        <time>2018-12-28T01:04:09Z</time>
      </trkpt>
      <trkpt lat="36.455080" lon="-110.706560">
        <ele>1860.929</ele>
        <time>2018-12-28T01:04:29Z</time>
      </trkpt>
      <trkpt lat="36.454900" lon="-110.706990">
        <ele>1860.700</ele>
        <time>2018-12-28T01:04:49Z</time>
      </trkpt>
      <trkpt lat="36.454690" lon="-110.707510">
        <ele>1860.520</ele>
        <time>2018-12-28T01:05:09Z</time>
      </trkpt>
      <trkpt lat="36.454530" lon="-110.707870">
        <ele>1860.608</ele>
        <time>2018-12-28T01:05:29Z</time>
      </trkpt>
      <trkpt lat="36.454400" lon="-110.708200">
        <ele>1860.815</ele>
        <time>2018-12-28T01:05:49Z</time>
      </trkpt>
      <trkpt lat="36.454280" lon="-110.708460">
        <ele>1860.983</ele>
        <time>2018-12-28T01:06:09Z</time>
      </trkpt>
      <trkpt lat="36.454130" lon="-110.708830">
        <ele>1861.698</ele>
        <time>2018-12-28T01:06:29Z</time>
      </trkpt>
      <trkpt lat="36.453920" lon="-110.709340">
        <ele>1863.049</ele>
        <time>2018-12-28T01:06:49Z</time>
      </trkpt>
      <trkpt lat="36.453630" lon="-110.710060">
        <ele>1865.394</ele>
        <time>2018-12-28T01:07:09Z</time>
      </trkpt>
      <trkpt lat="36.453280" lon="-110.710880">
        <ele>1866.562</ele>
        <time>2018-12-28T01:07:29Z</time>
      </trkpt>
      <trkpt lat="36.452980" lon="-110.711560">
        <ele>1867.954</ele>
        <time>2018-12-28T01:07:49Z</time>
      </trkpt>
      <trkpt lat="36.451720" lon="-110.714580">
        <ele>1873.563</ele>
        <time>2018-12-28T01:08:09Z</time>
      </trkpt>
      <trkpt lat="36.450230" lon="-110.718100">
        <ele>1872.764</ele>
        <time>2018-12-28T01:08:29Z</time>
      </trkpt>
      <trkpt lat="36.449200" lon="-110.720530">
        <ele>1866.706</ele>
        <time>2018-12-28T01:08:49Z</time>
      </trkpt>
      <trkpt lat="36.448920" lon="-110.721170">
        <ele>1870.116</ele>
        <time>2018-12-28T01:09:09Z</time>
      </trkpt>
      <trkpt lat="36.448860" lon="-110.721350">
        <ele>1870.908</ele>
        <time>2018-12-28T01:09:29Z</time>
      </trkpt>
      <trkpt lat="36.448610" lon="-110.721900">
        <ele>1872.669</ele>
        <time>2018-12-28T01:09:49Z</time>
      </trkpt>
      <trkpt lat="36.448080" lon="-110.723170">
        <ele>1876.267</ele>
        <time>2018-12-28T01:10:09Z</time>
      </trkpt>
      <trkpt lat="36.447440" lon="-110.724700">
        <ele>1881.522</ele>
        <time>2018-12-28T01:10:29Z</time>
      </trkpt>
      <trkpt lat="36.446660" lon="-110.726530">
        <ele>1884.993</ele>
        <time>2018-12-28T01:10:49Z</time>
      </trkpt>
      <trkpt lat="36.445990" lon="-110.728130">
        <ele>1880.078</ele>
        <time>2018-12-28T01:11:09Z</time>
      </trkpt>
      <trkpt lat="36.445570" lon="-110.729160">
        <ele>1874.946</ele>
        <time>2018-12-28T01:11:29Z</time>
      </trkpt>
      <trkpt lat="36.445350" lon="-110.729670">
        <ele>1872.538</ele>
        <time>2018-12-28T01:11:49Z</time>
      </trkpt>
      <trkpt lat="36.445100" lon="-110.730250">
        <ele>1872.257</ele>
        <time>2018-12-28T01:12:09Z</time>
      </trkpt>
      <trkpt lat="36.443870" lon="-110.733150">
        <ele>1874.456</ele>
        <time>2018-12-28T01:12:29Z</time>
      </trkpt>
      <trkpt lat="36.442930" lon="-110.735380">
        <ele>1878.159</ele>
        <time>2018-12-28T01:12:49Z</time>
      </trkpt>
      <trkpt lat="36.442580" lon="-110.736230">
        <ele>1877.814</ele>
        <time>2018-12-28T01:13:09Z</time>
      </trkpt>
      <trkpt lat="36.442490" lon="-110.736450">
        <ele>1877.508</ele>
        <time>2018-12-28T01:13:29Z</time>
      </trkpt>
      <trkpt lat="36.441850" lon="-110.737990">
        <ele>1876.288</ele>
        <time>2018-12-28T01:13:49Z</time>
      </trkpt>
      <trkpt lat="36.441630" lon="-110.738520">
        <ele>1875.916</ele>
        <time>2018-12-28T01:14:09Z</time>
      </trkpt>
      <trkpt lat="36.441540" lon="-110.738750">
        <ele>1875.721</ele>
        <time>2018-12-28T01:14:29Z</time>
      </trkpt>
      <trkpt lat="36.441460" lon="-110.738980">
        <ele>1875.052</ele>
        <time>2018-12-28T01:14:49Z</time>
      </trkpt>
      <trkpt lat="36.441370" lon="-110.739240">
        <ele>1874.677</ele>
        <time>2018-12-28T01:15:09Z</time>
      </trkpt>
      <trkpt lat="36.441310" lon="-110.739490">
        <ele>1874.075</ele>
        <time>2018-12-28T01:15:29Z</time>
      </trkpt>
      <trkpt lat="36.441220" lon="-110.739820">
        <ele>1873.027</ele>
        <time>2018-12-28T01:15:49Z</time>
      </trkpt>
      <trkpt lat="36.441120" lon="-110.740250">
        <ele>1872.876</ele>
        <time>2018-12-28T01:16:09Z</time>
      </trkpt>
      <trkpt lat="36.441040" lon="-110.740660">
        <ele>1872.655</ele>
        <time>2018-12-28T01:16:29Z</time>
      </trkpt>
      <trkpt lat="36.440990" lon="-110.741000">
        <ele>1872.207</ele>
        <time>2018-12-28T01:16:49Z</time>
      </trkpt>
      <trkpt lat="36.440930" lon="-110.741460">
        <ele>1871.717</ele>
        <time>2018-12-28T01:17:09Z</time>
      </trkpt>
      <trkpt lat="36.440900" lon="-110.741810">
        <ele>1870.808</ele>
        <time>2018-12-28T01:17:29Z</time>
      </trkpt>
      <trkpt lat="36.440870" lon="-110.742390">
        <ele>1867.798</ele>
        <time>2018-12-28T01:17:49Z</time>
      </trkpt>
      <trkpt lat="36.440860" lon="-110.743070">
        <ele>1866.526</ele>
        <time>2018-12-28T01:18:09Z</time>
      </trkpt>
      <trkpt lat="36.440820" lon="-110.744240">
        <ele>1865.851</ele>
        <time>2018-12-28T01:18:29Z</time>
      </trkpt>
      <trkpt lat="36.440740" lon="-110.747060">
        <ele>1860.412</ele>
        <time>2018-12-28T01:18:49Z</time>
      </trkpt>
      <trkpt lat="36.440700" lon="-110.747910">
        <ele>1859.217</ele>
        <time>2018-12-28T01:19:09Z</time>
      </trkpt>
      <trkpt lat="36.440680" lon="-110.748260">
        <ele>1858.595</ele>
        <time>2018-12-28T01:19:29Z</time>
      </trkpt>
      <trkpt lat="36.440560" lon="-110.748940">
        <ele>1857.567</ele>
        <time>2018-12-28T01:19:49Z</time>
      </trkpt>
      <trkpt lat="36.440500" lon="-110.749310">
        <ele>1857.416</ele>
        <time>2018-12-28T01:20:09Z</time>
      </trkpt>
      <trkpt lat="36.440390" lon="-110.749770">
        <ele>1857.471</ele>
        <time>2018-12-28T01:20:29Z</time>
      </trkpt>
      <trkpt lat="36.440330" lon="-110.750000">
        <ele>1857.341</ele>
        <time>2018-12-28T01:20:49Z</time>
      </trkpt>
      <trkpt lat="36.440250" lon="-110.750310">
        <ele>1857.115</ele>
        <time>2018-12-28T01:21:09Z</time>
      </trkpt>
      <trkpt lat="36.440060" lon="-110.750870">
        <ele>1856.108</ele>
        <time>2018-12-28T01:21:29Z</time>
      </trkpt>
      <trkpt lat="36.439810" lon="-110.751530">
        <ele>1855.220</ele>
        <time>2018-12-28T01:21:49Z</time>
      </trkpt>
      <trkpt lat="36.439090" lon="-110.753370">
        <ele>1853.878</ele>
        <time>2018-12-28T01:22:09Z</time>
      </trkpt>
      <trkpt lat="36.438470" lon="-110.754940">
        <ele>1848.433</ele>
        <time>2018-12-28T01:22:29Z</time>
      </trkpt>
      <trkpt lat="36.437290" lon="-110.757900">
        <ele>1844.024</ele>
        <time>2018-12-28T01:22:49Z</time>
      </trkpt>
      <trkpt lat="36.435460" lon="-110.762620">
        <ele>1834.429</ele>
        <time>2018-12-28T01:23:09Z</time>
      </trkpt>
      <trkpt lat="36.433600" lon="-110.767360">
        <ele>1832.817</ele>
        <time>2018-12-28T01:23:29Z</time>
      </trkpt>
      <trkpt lat="36.432590" lon="-110.769900">
        <ele>1829.529</ele>
        <time>2018-12-28T01:23:49Z</time>
      </trkpt>
      <trkpt lat="36.431400" lon="-110.772950">
        <ele>1828.678</ele>
        <time>2018-12-28T01:24:09Z</time>
      </trkpt>
      <trkpt lat="36.431040" lon="-110.773860">
        <ele>1826.173</ele>
        <time>2018-12-28T01:24:29Z</time>
      </trkpt>
      <trkpt lat="36.428620" lon="-110.780000">
        <ele>1819.485</ele>
        <time>2018-12-28T01:24:49Z</time>
      </trkpt>
      <trkpt lat="36.427150" lon="-110.783650">
        <ele>1817.313</ele>
        <time>2018-12-28T01:25:09Z</time>
      </trkpt>
      <trkpt lat="36.427090" lon="-110.783810">
        <ele>1817.208</ele>
        <time>2018-12-28T01:25:29Z</time>
      </trkpt>
      <trkpt lat="36.426140" lon="-110.786180">
        <ele>1816.480</ele>
        <time>2018-12-28T01:25:49Z</time>
      </trkpt>
      <trkpt lat="36.425590" lon="-110.787590">
        <ele>1817.068</ele>
        <time>2018-12-28T01:26:09Z</time>
      </trkpt>
      <trkpt lat="36.424320" lon="-110.790810">
        <ele>1817.793</ele>
        <time>2018-12-28T01:26:29Z</time>
      </trkpt>
      <trkpt lat="36.424070" lon="-110.791490">
        <ele>1817.874</ele>
        <time>2018-12-28T01:26:49Z</time>
      </trkpt>
      <trkpt lat="36.423560" lon="-110.792870">
        <ele>1816.329</ele>
        <time>2018-12-28T01:27:09Z</time>
      </trkpt>
      <trkpt lat="36.423260" lon="-110.793670">
        <ele>1814.947</ele>
        <time>2018-12-28T01:27:29Z</time>
      </trkpt>
      <trkpt lat="36.422790" lon="-110.794990">
        <ele>1809.639</ele>
        <time>2018-12-28T01:27:49Z</time>
      </trkpt>
      <trkpt lat="36.420020" lon="-110.802510">
        <ele>1799.018</ele>
        <time>2018-12-28T01:28:09Z</time>
      </trkpt>
      <trkpt lat="36.419340" lon="-110.804370">
        <ele>1797.664</ele>
        <time>2018-12-28T01:28:29Z</time>
      </trkpt>
      <trkpt lat="36.418780" lon="-110.805890">
        <ele>1796.906</ele>
        <time>2018-12-28T01:28:49Z</time>
      </trkpt>
      <trkpt lat="36.418700" lon="-110.806110">
        <ele>1797.316</ele>
        <time>2018-12-28T01:29:09Z</time>
      </trkpt>
      <trkpt lat="36.418190" lon="-110.807460">
        <ele>1799.008</ele>
        <time>2018-12-28T01:29:29Z</time>
      </trkpt>
      <trkpt lat="36.417150" lon="-110.810310">
        <ele>1794.669</ele>
        <time>2018-12-28T01:29:49Z</time>
      </trkpt>
      <trkpt lat="36.416600" lon="-110.811790">
        <ele>1792.637</ele>
        <time>2018-12-28T01:30:09Z</time>
      </trkpt>
      <trkpt lat="36.415780" lon="-110.814030">
        <ele>1792.742</ele>
        <time>2018-12-28T01:30:29Z</time>
      </trkpt>
      <trkpt lat="36.415460" lon="-110.814900">
        <ele>1791.213</ele>
        <time>2018-12-28T01:30:49Z</time>
      </trkpt>
      <trkpt lat="36.415060" lon="-110.815980">
        <ele>1790.678</ele>
        <time>2018-12-28T01:31:09Z</time>
      </trkpt>
      <trkpt lat="36.413860" lon="-110.819270">
        <ele>1789.266</ele>
        <time>2018-12-28T01:31:29Z</time>
      </trkpt>
      <trkpt lat="36.413550" lon="-110.820090">
        <ele>1789.448</ele>
        <time>2018-12-28T01:31:49Z</time>
      </trkpt>
      <trkpt lat="36.413380" lon="-110.820560">
        <ele>1789.527</ele>
        <time>2018-12-28T01:32:09Z</time>
      </trkpt>
      <trkpt lat="36.412800" lon="-110.822150">
        <ele>1788.162</ele>
        <time>2018-12-28T01:32:29Z</time>
      </trkpt>
      <trkpt lat="36.412550" lon="-110.822810">
        <ele>1787.883</ele>
        <time>2018-12-28T01:32:49Z</time>
      </trkpt>
      <trkpt lat="36.411860" lon="-110.824680">
        <ele>1787.711</ele>
        <time>2018-12-28T01:33:09Z</time>
      </trkpt>
      <trkpt lat="36.411500" lon="-110.825680">
        <ele>1787.908</ele>
        <time>2018-12-28T01:33:29Z</time>
      </trkpt>
      <trkpt lat="36.410620" lon="-110.828090">
        <ele>1788.189</ele>
        <time>2018-12-28T01:33:49Z</time>
      </trkpt>
      <trkpt lat="36.410530" lon="-110.828320">
        <ele>1787.957</ele>
        <time>2018-12-28T01:34:09Z</time>
      </trkpt>
      <trkpt lat="36.407740" lon="-110.835880">
        <ele>1773.242</ele>
        <time>2018-12-28T01:34:29Z</time>
      </trkpt>
      <trkpt lat="36.406670" lon="-110.838800">
        <ele>1771.543</ele>
        <time>2018-12-28T01:34:49Z</time>
      </trkpt>
      <trkpt lat="36.406180" lon="-110.840150">
        <ele>1769.268</ele>
        <time>2018-12-28T01:35:09Z</time>
      </trkpt>
      <trkpt lat="36.405700" lon="-110.841460">
        <ele>1769.756</ele>
        <time>2018-12-28T01:35:29Z</time>
      </trkpt>
      <trkpt lat="36.405130" lon="-110.842970">
        <ele>1769.378</ele>
        <time>2018-12-28T01:35:49Z</time>
      </trkpt>
      <trkpt lat="36.404440" lon="-110.844840">
        <ele>1765.557</ele>
        <time>2018-12-28T01:36:09Z</time>
      </trkpt>
      <trkpt lat="36.404110" lon="-110.845730">
        <ele>1762.774</ele>
        <time>2018-12-28T01:36:29Z</time>
      </trkpt>
      <trkpt lat="36.404000" lon="-110.846050">
        <ele>1762.756</ele>
        <time>2018-12-28T01:36:49Z</time>
      </trkpt>
      <trkpt lat="36.403620" lon="-110.847050">
        <ele>1762.421</ele>
        <time>2018-12-28T01:37:09Z</time>
      </trkpt>
      <trkpt lat="36.403530" lon="-110.847310">
        <ele>1761.908</ele>
        <time>2018-12-28T01:37:29Z</time>
      </trkpt>
      <trkpt lat="36.403050" lon="-110.848620">
        <ele>1760.270</ele>
        <time>2018-12-28T01:37:49Z</time>
      </trkpt>
      <trkpt lat="36.402150" lon="-110.851070">
        <ele>1756.498</ele>
        <time>2018-12-28T01:38:09Z</time>
      </trkpt>
      <trkpt lat="36.400960" lon="-110.854260">
        <ele>1754.893</ele>
        <time>2018-12-28T01:38:29Z</time>
      </trkpt>
      <trkpt lat="36.400290" lon="-110.856110">
        <ele>1752.614</ele>
        <time>2018-12-28T01:38:49Z</time>
      </trkpt>
      <trkpt lat="36.400150" lon="-110.856480">
        <ele>1752.189</ele>
        <time>2018-12-28T01:39:09Z</time>
      </trkpt>
      <trkpt lat="36.399820" lon="-110.857340">
        <ele>1750.327</ele>
        <time>2018-12-28T01:39:29Z</time>
      </trkpt>
      <trkpt lat="36.399060" lon="-110.859420">
        <ele>1745.869</ele>
        <time>2018-12-28T01:39:49Z</time>
      </trkpt>
      <trkpt lat="36.398620" lon="-110.860590">
        <ele>1744.458</ele>
        <time>2018-12-28T01:40:09Z</time>
      </trkpt>
      <trkpt lat="36.397810" lon="-110.862820">
        <ele>1744.292</ele>
        <time>2018-12-28T01:40:29Z</time>
      </trkpt>
      <trkpt lat="36.397740" lon="-110.863040">
        <ele>1744.373</ele>
        <time>2018-12-28T01:40:49Z</time>
      </trkpt>
      <trkpt lat="36.397460" lon="-110.863860">
        <ele>1744.220</ele>
        <time>2018-12-28T01:41:09Z</time>
      </trkpt>
      <trkpt lat="36.396930" lon="-110.865270">
        <ele>1743.608</ele>
        <time>2018-12-28T01:41:29Z</time>
      </trkpt>
      <trkpt lat="36.396350" lon="-110.866880">
        <ele>1742.552</ele>
        <time>2018-12-28T01:41:49Z</time>
      </trkpt>
      <trkpt lat="36.395930" lon="-110.867980">
        <ele>1741.840</ele>
        <time>2018-12-28T01:42:09Z</time>
      </trkpt>
      <trkpt lat="36.395660" lon="-110.868740">
        <ele>1739.795</ele>
        <time>2018-12-28T01:42:29Z</time>
      </trkpt>
      <trkpt lat="36.394520" lon="-110.871800">
        <ele>1732.996</ele>
        <time>2018-12-28T01:42:49Z</time>
      </trkpt>
      <trkpt lat="36.393670" lon="-110.874110">
        <ele>1726.181</ele>
        <time>2018-12-28T01:43:09Z</time>
      </trkpt>
      <trkpt lat="36.393240" lon="-110.875250">
        <ele>1725.579</ele>
        <time>2018-12-28T01:43:29Z</time>
      </trkpt>
      <trkpt lat="36.392440" lon="-110.877470">
        <ele>1721.231</ele>
        <time>2018-12-28T01:43:49Z</time>
      </trkpt>
      <trkpt lat="36.392240" lon="-110.878030">
        <ele>1721.840</ele>
        <time>2018-12-28T01:44:09Z</time>
      </trkpt>
      <trkpt lat="36.392130" lon="-110.878310">
        <ele>1722.422</ele>
        <time>2018-12-28T01:44:29Z</time>
      </trkpt>
      <trkpt lat="36.392030" lon="-110.878540">
        <ele>1722.862</ele>
        <time>2018-12-28T01:44:49Z</time>
      </trkpt>
      <trkpt lat="36.392010" lon="-110.878590">
        <ele>1722.908</ele>
        <time>2018-12-28T01:45:09Z</time>
      </trkpt>
      <trkpt lat="36.392000" lon="-110.878670">
        <ele>1723.008</ele>
        <time>2018-12-28T01:45:29Z</time>
      </trkpt>
      <trkpt lat="36.391800" lon="-110.879050">
        <ele>1723.765</ele>
        <time>2018-12-28T01:45:49Z</time>
      </trkpt>
      <trkpt lat="36.391530" lon="-110.879520">
        <ele>1724.953</ele>
        <time>2018-12-28T01:46:09Z</time>
      </trkpt>
      <trkpt lat="36.391190" lon="-110.879980">
        <ele>1725.628</ele>
        <time>2018-12-28T01:46:29Z</time>
      </trkpt>
      <trkpt lat="36.390920" lon="-110.880320">
        <ele>1725.719</ele>
        <time>2018-12-28T01:46:49Z</time>
      </trkpt>
      <trkpt lat="36.390810" lon="-110.880440">
        <ele>1725.774</ele>
        <time>2018-12-28T01:47:09Z</time>
      </trkpt>
      <trkpt lat="36.390620" lon="-110.880630">
        <ele>1725.832</ele>
        <time>2018-12-28T01:47:29Z</time>
      </trkpt>
      <trkpt lat="36.390380" lon="-110.880840">
        <ele>1725.924</ele>
        <time>2018-12-28T01:47:49Z</time>
      </trkpt>
      <trkpt lat="36.390210" lon="-110.880990">
        <ele>1726.153</ele>
        <time>2018-12-28T01:48:09Z</time>
      </trkpt>
      <trkpt lat="36.390050" lon="-110.881110">
        <ele>1726.139</ele>
        <time>2018-12-28T01:48:29Z</time>
      </trkpt>
      <trkpt lat="36.389560" lon="-110.881460">
        <ele>1726.201</ele>
        <time>2018-12-28T01:48:49Z</time>
      </trkpt>
      <trkpt lat="36.389260" lon="-110.881690">
        <ele>1726.121</ele>
        <time>2018-12-28T01:49:09Z</time>
      </trkpt>
      <trkpt lat="36.389010" lon="-110.881870">
        <ele>1725.108</ele>
        <time>2018-12-28T01:49:29Z</time>
      </trkpt>
      <trkpt lat="36.388960" lon="-110.881890">
        <ele>1724.946</ele>
        <time>2018-12-28T01:49:49Z</time>
      </trkpt>
      <trkpt lat="36.388720" lon="-110.882070">
        <ele>1724.424</ele>
        <time>2018-12-28T01:50:09Z</time>
      </trkpt>
      <trkpt lat="36.387960" lon="-110.882640">
        <ele>1721.499</ele>
        <time>2018-12-28T01:50:29Z</time>
      </trkpt>
      <trkpt lat="36.387550" lon="-110.882940">
        <ele>1720.930</ele>
        <time>2018-12-28T01:50:49Z</time>
      </trkpt>
      <trkpt lat="36.387230" lon="-110.883180">
        <ele>1721.055</ele>
        <time>2018-12-28T01:51:09Z</time>
      </trkpt>
      <trkpt lat="36.386750" lon="-110.883530">
        <ele>1721.253</ele>
        <time>2018-12-28T01:51:29Z</time>
      </trkpt>
      <trkpt lat="36.386210" lon="-110.883930">
        <ele>1720.725</ele>
        <time>2018-12-28T01:51:49Z</time>
      </trkpt>
      <trkpt lat="36.385860" lon="-110.884180">
        <ele>1720.554</ele>
        <time>2018-12-28T01:52:09Z</time>
      </trkpt>
      <trkpt lat="36.382520" lon="-110.886640">
        <ele>1720.059</ele>
        <time>2018-12-28T01:52:29Z</time>
      </trkpt>
      <trkpt lat="36.382320" lon="-110.886780">
        <ele>1720.003</ele>
        <time>2018-12-28T01:52:49Z</time>
      </trkpt>
      <trkpt lat="36.380080" lon="-110.888440">
        <ele>1716.623</ele>
        <time>2018-12-28T01:53:09Z</time>
      </trkpt>
      <trkpt lat="36.379510" lon="-110.888850">
        <ele>1716.108</ele>
        <time>2018-12-28T01:53:29Z</time>
      </trkpt>
      <trkpt lat="36.378470" lon="-110.889630">
        <ele>1715.348</ele>
        <time>2018-12-28T01:53:49Z</time>
      </trkpt>
      <trkpt lat="36.376970" lon="-110.890720">
        <ele>1713.946</ele>
        <time>2018-12-28T01:54:09Z</time>
      </trkpt>
      <trkpt lat="36.376350" lon="-110.891170">
        <ele>1713.491</ele>
        <time>2018-12-28T01:54:29Z</time>
      </trkpt>
      <trkpt lat="36.375510" lon="-110.891800">
        <ele>1711.832</ele>
        <time>2018-12-28T01:54:49Z</time>
      </trkpt>
      <trkpt lat="36.373420" lon="-110.893330">
        <ele>1708.467</ele>
        <time>2018-12-28T01:55:09Z</time>
      </trkpt>
      <trkpt lat="36.373110" lon="-110.893560">
        <ele>1708.195</ele>
        <time>2018-12-28T01:55:29Z</time>
      </trkpt>
      <trkpt lat="36.372030" lon="-110.894350">
        <ele>1707.497</ele>
        <time>2018-12-28T01:55:49Z</time>
      </trkpt>
      <trkpt lat="36.370950" lon="-110.895150">
        <ele>1706.846</ele>
        <time>2018-12-28T01:56:09Z</time>
      </trkpt>
      <trkpt lat="36.370600" lon="-110.895400">
        <ele>1706.681</ele>
        <time>2018-12-28T01:56:29Z</time>
      </trkpt>
      <trkpt lat="36.370130" lon="-110.895740">
        <ele>1706.261</ele>
        <time>2018-12-28T01:56:49Z</time>
      </trkpt>
      <trkpt lat="36.369590" lon="-110.896160">
        <ele>1705.617</ele>
        <time>2018-12-28T01:57:09Z</time>
      </trkpt>
      <trkpt lat="36.369120" lon="-110.896500">
        <ele>1705.108</ele>
        <time>2018-12-28T01:57:29Z</time>
      </trkpt>
      <trkpt lat="36.367950" lon="-110.897360">
        <ele>1703.671</ele>
        <time>2018-12-28T01:57:49Z</time>
      </trkpt>
      <trkpt lat="36.367150" lon="-110.897970">
        <ele>1703.469</ele>
        <time>2018-12-28T01:58:09Z</time>
      </trkpt>
      <trkpt lat="36.366770" lon="-110.898260">
        <ele>1702.744</ele>
        <time>2018-12-28T01:58:29Z</time>
      </trkpt>
      <trkpt lat="36.366360" lon="-110.898550">
        <ele>1702.485</ele>
        <time>2018-12-28T01:58:49Z</time>
      </trkpt>
      <trkpt lat="36.365790" lon="-110.898960">
        <ele>1701.870</ele>
        <time>2018-12-28T01:59:09Z</time>
      </trkpt>
      <trkpt lat="36.365460" lon="-110.899200">
        <ele>1701.778</ele>
        <time>2018-12-28T01:59:29Z</time>
      </trkpt>
      <trkpt lat="36.361420" lon="-110.902170">
        <ele>1697.590</ele>
        <time>2018-12-28T01:59:49Z</time>
      </trkpt>
      <trkpt lat="36.359590" lon="-110.903510">
        <ele>1697.239</ele>
        <time>2018-12-28T02:00:09Z</time>
      </trkpt>
      <trkpt lat="36.357930" lon="-110.904750">
        <ele>1696.852</ele>
        <time>2018-12-28T02:00:29Z</time>
      </trkpt>
      <trkpt lat="36.356530" lon="-110.905780">
        <ele>1694.453</ele>
        <time>2018-12-28T02:00:49Z</time>
      </trkpt>
      <trkpt lat="36.355190" lon="-110.906770">
        <ele>1689.308</ele>
        <time>2018-12-28T02:01:09Z</time>
      </trkpt>
      <trkpt lat="36.353900" lon="-110.907720">
        <ele>1683.608</ele>
        <time>2018-12-28T02:01:29Z</time>
      </trkpt>
      <trkpt lat="36.352440" lon="-110.908780">
        <ele>1683.288</ele>
        <time>2018-12-28T02:01:49Z</time>
      </trkpt>
      <trkpt lat="36.351090" lon="-110.909770">
        <ele>1683.236</ele>
        <time>2018-12-28T02:02:09Z</time>
      </trkpt>
      <trkpt lat="36.350440" lon="-110.910250">
        <ele>1683.171</ele>
        <time>2018-12-28T02:02:29Z</time>
      </trkpt>
      <trkpt lat="36.348960" lon="-110.911340">
        <ele>1682.582</ele>
        <time>2018-12-28T02:02:49Z</time>
      </trkpt>
      <trkpt lat="36.348850" lon="-110.911420">
        <ele>1682.597</ele>
        <time>2018-12-28T02:03:09Z</time>
      </trkpt>
      <trkpt lat="36.347810" lon="-110.912190">
        <ele>1681.755</ele>
        <time>2018-12-28T02:03:29Z</time>
      </trkpt>
      <trkpt lat="36.346410" lon="-110.913210">
        <ele>1680.037</ele>
        <time>2018-12-28T02:03:49Z</time>
      </trkpt>
      <trkpt lat="36.345380" lon="-110.913960">
        <ele>1677.966</ele>
        <time>2018-12-28T02:04:09Z</time>
      </trkpt>
      <trkpt lat="36.342660" lon="-110.915970">
        <ele>1675.272</ele>
        <time>2018-12-28T02:04:29Z</time>
      </trkpt>
      <trkpt lat="36.339590" lon="-110.918230">
        <ele>1671.513</ele>
        <time>2018-12-28T02:04:49Z</time>
      </trkpt>
      <trkpt lat="36.337670" lon="-110.919640">
        <ele>1669.814</ele>
        <time>2018-12-28T02:05:09Z</time>
      </trkpt>
      <trkpt lat="36.337170" lon="-110.920020">
        <ele>1669.708</ele>
        <time>2018-12-28T02:05:29Z</time>
      </trkpt>
      <trkpt lat="36.335840" lon="-110.920980">
        <ele>1669.710</ele>
        <time>2018-12-28T02:05:49Z</time>
      </trkpt>
      <trkpt lat="36.333520" lon="-110.922690">
        <ele>1670.688</ele>
        <time>2018-12-28T02:06:09Z</time>
      </trkpt>
      <trkpt lat="36.333060" lon="-110.923030">
        <ele>1670.993</ele>
        <time>2018-12-28T02:06:29Z</time>
      </trkpt>
      <trkpt lat="36.332200" lon="-110.923660">
        <ele>1671.244</ele>
        <time>2018-12-28T02:06:49Z</time>
      </trkpt>
      <trkpt lat="36.330990" lon="-110.924550">
        <ele>1674.179</ele>
        <time>2018-12-28T02:07:09Z</time>
      </trkpt>
      <trkpt lat="36.330460" lon="-110.924930">
        <ele>1672.747</ele>
        <time>2018-12-28T02:07:29Z</time>
      </trkpt>
      <trkpt lat="36.328830" lon="-110.926130">
        <ele>1671.239</ele>
        <time>2018-12-28T02:07:49Z</time>
      </trkpt>
      <trkpt lat="36.328550" lon="-110.926340">
        <ele>1670.738</ele>
        <time>2018-12-28T02:08:09Z</time>
      </trkpt>
      <trkpt lat="36.328360" lon="-110.926490">
        <ele>1670.854</ele>
        <time>2018-12-28T02:08:29Z</time>
      </trkpt>
      <trkpt lat="36.328210" lon="-110.926620">
        <ele>1671.056</ele>
        <time>2018-12-28T02:08:49Z</time>
      </trkpt>
      <trkpt lat="36.328000" lon="-110.926800">
        <ele>1670.911</ele>
        <time>2018-12-28T02:09:09Z</time>
      </trkpt>
      <trkpt lat="36.327780" lon="-110.926990">
        <ele>1670.208</ele>
        <time>2018-12-28T02:09:29Z</time>
      </trkpt>
      <trkpt lat="36.327510" lon="-110.927250">
        <ele>1668.878</ele>
        <time>2018-12-28T02:09:49Z</time>
      </trkpt>
      <trkpt lat="36.327200" lon="-110.927600">
        <ele>1667.896</ele>
        <time>2018-12-28T02:10:09Z</time>
      </trkpt>
      <trkpt lat="36.326940" lon="-110.927920">
        <ele>1666.671</ele>
        <time>2018-12-28T02:10:29Z</time>
      </trkpt>
      <trkpt lat="36.326780" lon="-110.928140">
        <ele>1666.532</ele>
        <time>2018-12-28T02:10:49Z</time>
      </trkpt>
      <trkpt lat="36.326600" lon="-110.928380">
        <ele>1666.257</ele>
        <time>2018-12-28T02:11:09Z</time>
      </trkpt>
      <trkpt lat="36.326370" lon="-110.928730">
        <ele>1665.825</ele>
        <time>2018-12-28T02:11:29Z</time>
      </trkpt>
      <trkpt lat="36.326130" lon="-110.929130">
        <ele>1665.767</ele>
        <time>2018-12-28T02:11:49Z</time>
      </trkpt>
      <trkpt lat="36.325790" lon="-110.929760">
        <ele>1664.976</ele>
        <time>2018-12-28T02:12:09Z</time>
      </trkpt>
      <trkpt lat="36.325710" lon="-110.929940">
        <ele>1664.514</ele>
        <time>2018-12-28T02:12:29Z</time>
      </trkpt>
      <trkpt lat="36.325150" lon="-110.931320">
        <ele>1664.254</ele>
        <time>2018-12-28T02:12:49Z</time>
      </trkpt>
      <trkpt lat="36.324960" lon="-110.931830">
        <ele>1664.309</ele>
        <time>2018-12-28T02:13:09Z</time>
      </trkpt>
      <trkpt lat="36.324190" lon="-110.933900">
        <ele>1659.608</ele>
        <time>2018-12-28T02:13:29Z</time>
      </trkpt>
      <trkpt lat="36.323650" lon="-110.935310">
        <ele>1659.174</ele>
        <time>2018-12-28T02:13:49Z</time>
      </trkpt>
      <trkpt lat="36.322990" lon="-110.937050">
        <ele>1659.242</ele>
        <time>2018-12-28T02:14:09Z</time>
      </trkpt>
      <trkpt lat="36.322970" lon="-110.937180">
        <ele>1659.247</ele>
        <time>2018-12-28T02:14:29Z</time>
      </trkpt>
      <trkpt lat="36.322390" lon="-110.938750">
        <ele>1667.888</ele>
        <time>2018-12-28T02:14:49Z</time>
      </trkpt>
      <trkpt lat="36.322260" lon="-110.939110">
        <ele>1671.273</ele>
        <time>2018-12-28T02:15:09Z</time>
      </trkpt>
      <trkpt lat="36.321940" lon="-110.939940">
        <ele>1679.371</ele>
        <time>2018-12-28T02:15:29Z</time>
      </trkpt>
      <trkpt lat="36.321910" lon="-110.940020">
        <ele>1680.083</ele>
        <time>2018-12-28T02:15:49Z</time>
      </trkpt>
      <trkpt lat="36.321540" lon="-110.940990">
        <ele>1685.522</ele>
        <time>2018-12-28T02:16:09Z</time>
      </trkpt>
      <trkpt lat="36.321400" lon="-110.941310">
        <ele>1688.442</ele>
        <time>2018-12-28T02:16:29Z</time>
      </trkpt>
      <trkpt lat="36.321340" lon="-110.941400">
        <ele>1689.022</ele>
        <time>2018-12-28T02:16:49Z</time>
      </trkpt>
      <trkpt lat="36.321060" lon="-110.942140">
        <ele>1695.214</ele>
        <time>2018-12-28T02:17:09Z</time>
      </trkpt>
      <trkpt lat="36.320720" lon="-110.943040">
        <ele>1696.608</ele>
        <time>2018-12-28T02:17:29Z</time>
      </trkpt>
      <trkpt lat="36.320510" lon="-110.943620">
        <ele>1700.847</ele>
        <time>2018-12-28T02:17:49Z</time>
      </trkpt>
      <trkpt lat="36.319860" lon="-110.945320">
        <ele>1701.535</ele>
        <time>2018-12-28T02:18:09Z</time>
      </trkpt>
      <trkpt lat="36.319810" lon="-110.945450">
        <ele>1701.920</ele>
        <time>2018-12-28T02:18:29Z</time>
      </trkpt>
      <trkpt lat="36.319500" lon="-110.946270">
        <ele>1702.451</ele>
        <time>2018-12-28T02:18:49Z</time>
      </trkpt>
      <trkpt lat="36.319400" lon="-110.946570">
        <ele>1702.436</ele>
        <time>2018-12-28T02:19:09Z</time>
      </trkpt>
      <trkpt lat="36.319330" lon="-110.946750">
        <ele>1702.344</ele>
        <time>2018-12-28T02:19:29Z</time>
      </trkpt>
      <trkpt lat="36.319070" lon="-110.947430">
        <ele>1702.576</ele>
        <time>2018-12-28T02:19:49Z</time>
      </trkpt>
      <trkpt lat="36.318880" lon="-110.947900">
        <ele>1703.035</ele>
        <time>2018-12-28T02:20:09Z</time>
      </trkpt>
      <trkpt lat="36.318670" lon="-110.948480">
        <ele>1703.041</ele>
        <time>2018-12-28T02:20:29Z</time>
      </trkpt>
      <trkpt lat="36.318550" lon="-110.948770">
        <ele>1703.381</ele>
        <time>2018-12-28T02:20:49Z</time>
      </trkpt>
      <trkpt lat="36.318400" lon="-110.949170">
        <ele>1704.609</ele>
        <time>2018-12-28T02:21:09Z</time>
      </trkpt>
      <trkpt lat="36.318260" lon="-110.949500">
        <ele>1705.308</ele>
        <time>2018-12-28T02:21:29Z</time>
      </trkpt>
      <trkpt lat="36.318140" lon="-110.949740">
        <ele>1705.627</ele>
        <time>2018-12-28T02:21:49Z</time>
      </trkpt>
      <trkpt lat="36.317910" lon="-110.950220">
        <ele>1706.435</ele>
        <time>2018-12-28T02:22:09Z</time>
      </trkpt>
      <trkpt lat="36.317790" lon="-110.950440">
        <ele>1706.650</ele>
        <time>2018-12-28T02:22:29Z</time>
      </trkpt>
      <trkpt lat="36.317690" lon="-110.950620">
        <ele>1706.851</ele>
        <time>2018-12-28T02:22:49Z</time>
      </trkpt>
      <trkpt lat="36.317560" lon="-110.950830">
        <ele>1707.176</ele>
        <time>2018-12-28T02:23:09Z</time>
      </trkpt>
      <trkpt lat="36.317390" lon="-110.951090">
        <ele>1707.454</ele>
        <time>2018-12-28T02:23:29Z</time>
      </trkpt>
      <trkpt lat="36.317110" lon="-110.951510">
        <ele>1707.876</ele>
        <time>2018-12-28T02:23:49Z</time>
      </trkpt>
      <trkpt lat="36.315940" lon="-110.953290">
        <ele>1710.075</ele>
        <time>2018-12-28T02:24:09Z</time>
      </trkpt>
      <trkpt lat="36.315680" lon="-110.953690">
        <ele>1710.848</ele>
        <time>2018-12-28T02:24:29Z</time>
      </trkpt>
      <trkpt lat="36.315400" lon="-110.954110">
        <ele>1711.461</ele>
        <time>2018-12-28T02:24:49Z</time>
      </trkpt>
      <trkpt lat="36.313800" lon="-110.956570">
        <ele>1711.917</ele>
        <time>2018-12-28T02:25:09Z</time>
      </trkpt>
      <trkpt lat="36.313330" lon="-110.957280">
        <ele>1712.208</ele>
        <time>2018-12-28T02:25:29Z</time>
      </trkpt>
      <trkpt lat="36.312180" lon="-110.959020">
        <ele>1713.947</ele>
        <time>2018-12-28T02:25:49Z</time>
      </trkpt>
      <trkpt lat="36.311530" lon="-110.960000">
        <ele>1713.965</ele>
        <time>2018-12-28T02:26:09Z</time>
      </trkpt>
      <trkpt lat="36.310650" lon="-110.961350">
        <ele>1714.650</ele>
        <time>2018-12-28T02:26:29Z</time>
      </trkpt>
      <trkpt lat="36.310200" lon="-110.962040">
        <ele>1715.481</ele>
        <time>2018-12-28T02:26:49Z</time>
      </trkpt>
      <trkpt lat="36.309150" lon="-110.963620">
        <ele>1717.246</ele>
        <time>2018-12-28T02:27:09Z</time>
      </trkpt>
      <trkpt lat="36.308350" lon="-110.964830">
        <ele>1718.734</ele>
        <time>2018-12-28T02:27:29Z</time>
      </trkpt>
      <trkpt lat="36.306870" lon="-110.967090">
        <ele>1719.556</ele>
        <time>2018-12-28T02:27:49Z</time>
      </trkpt>
      <trkpt lat="36.306680" lon="-110.967390">
        <ele>1719.055</ele>
        <time>2018-12-28T02:28:09Z</time>
      </trkpt>
      <trkpt lat="36.306050" lon="-110.968350">
        <ele>1717.772</ele>
        <time>2018-12-28T02:28:29Z</time>
      </trkpt>
      <trkpt lat="36.305130" lon="-110.969760">
        <ele>1715.913</ele>
        <time>2018-12-28T02:28:49Z</time>
      </trkpt>
      <trkpt lat="36.304500" lon="-110.970700">
        <ele>1715.514</ele>
        <time>2018-12-28T02:29:09Z</time>
      </trkpt>
      <trkpt lat="36.301970" lon="-110.974570">
        <ele>1715.508</ele>
        <time>2018-12-28T02:29:29Z</time>
      </trkpt>
      <trkpt lat="36.300440" lon="-110.976890">
        <ele>1716.940</ele>
        <time>2018-12-28T02:29:49Z</time>
      </trkpt>
      <trkpt lat="36.299430" lon="-110.978430">
        <ele>1719.258</ele>
        <time>2018-12-28T02:30:09Z</time>
      </trkpt>
      <trkpt lat="36.298500" lon="-110.979820">
        <ele>1720.423</ele>
        <time>2018-12-28T02:30:29Z</time>
      </trkpt>
      <trkpt lat="36.298090" lon="-110.980460">
        <ele>1721.874</ele>
        <time>2018-12-28T02:30:49Z</time>
      </trkpt>
      <trkpt lat="36.297920" lon="-110.980720">
        <ele>1722.229</ele>
        <time>2018-12-28T02:31:09Z</time>
      </trkpt>
      <trkpt lat="36.297330" lon="-110.981600">
        <ele>1725.047</ele>
        <time>2018-12-28T02:31:29Z</time>
      </trkpt>
      <trkpt lat="36.296770" lon="-110.982470">
        <ele>1726.149</ele>
        <time>2018-12-28T02:31:49Z</time>
      </trkpt>
      <trkpt lat="36.296220" lon="-110.983300">
        <ele>1726.178</ele>
        <time>2018-12-28T02:32:09Z</time>
      </trkpt>
      <trkpt lat="36.295290" lon="-110.984710">
        <ele>1726.157</ele>
        <time>2018-12-28T02:32:29Z</time>
      </trkpt>
      <trkpt lat="36.293750" lon="-110.987050">
        <ele>1726.100</ele>
        <time>2018-12-28T02:32:49Z</time>
      </trkpt>
      <trkpt lat="36.293600" lon="-110.987290">
        <ele>1726.120</ele>
        <time>2018-12-28T02:33:09Z</time>
      </trkpt>
      <trkpt lat="36.293120" lon="-110.988020">
        <ele>1726.108</ele>
        <time>2018-12-28T02:33:29Z</time>
      </trkpt>
      <trkpt lat="36.291850" lon="-110.989980">
        <ele>1725.388</ele>
        <time>2018-12-28T02:33:49Z</time>
      </trkpt>
      <trkpt lat="36.291360" lon="-110.990710">
        <ele>1721.976</ele>
        <time>2018-12-28T02:34:09Z</time>
      </trkpt>
      <trkpt lat="36.291230" lon="-110.990900">
        <ele>1721.231</ele>
        <time>2018-12-28T02:34:29Z</time>
      </trkpt>
      <trkpt lat="36.291080" lon="-110.991100">
        <ele>1720.872</ele>
        <time>2018-12-28T02:34:49Z</time>
      </trkpt>
      <trkpt lat="36.290830" lon="-110.991410">
        <ele>1720.477</ele>
        <time>2018-12-28T02:35:09Z</time>
      </trkpt>
      <trkpt lat="36.290600" lon="-110.991700">
        <ele>1720.165</ele>
        <time>2018-12-28T02:35:29Z</time>
      </trkpt>
      <trkpt lat="36.290110" lon="-110.992280">
        <ele>1719.927</ele>
        <time>2018-12-28T02:35:49Z</time>
      </trkpt>
      <trkpt lat="36.289580" lon="-110.992910">
        <ele>1718.876</ele>
        <time>2018-12-28T02:36:09Z</time>
      </trkpt>
      <trkpt lat="36.288650" lon="-110.994020">
        <ele>1717.286</ele>
        <time>2018-12-28T02:36:29Z</time>
      </trkpt>
      <trkpt lat="36.287510" lon="-110.995390">
        <ele>1715.160</ele>
        <time>2018-12-28T02:36:49Z</time>
      </trkpt>
      <trkpt lat="36.285800" lon="-110.997400">
        <ele>1714.226</ele>
        <time>2018-12-28T02:37:09Z</time>
      </trkpt>
      <trkpt lat="36.284270" lon="-110.999220">
        <ele>1714.208</ele>
        <time>2018-12-28T02:37:29Z</time>
      </trkpt>
      <trkpt lat="36.283590" lon="-111.000050">
        <ele>1714.371</ele>
        <time>2018-12-28T02:37:49Z</time>
      </trkpt>
      <trkpt lat="36.282840" lon="-111.000940">
        <ele>1714.299</ele>
        <time>2018-12-28T02:38:09Z</time>
      </trkpt>
      <trkpt lat="36.281740" lon="-111.002250">
        <ele>1715.094</ele>
        <time>2018-12-28T02:38:29Z</time>
      </trkpt>
      <trkpt lat="36.281220" lon="-111.002890">
        <ele>1715.685</ele>
        <time>2018-12-28T02:38:49Z</time>
      </trkpt>
      <trkpt lat="36.279820" lon="-111.004540">
        <ele>1718.450</ele>
        <time>2018-12-28T02:39:09Z</time>
      </trkpt>
      <trkpt lat="36.279130" lon="-111.005370">
        <ele>1716.448</ele>
        <time>2018-12-28T02:39:29Z</time>
      </trkpt>
      <trkpt lat="36.278280" lon="-111.006380">
        <ele>1714.860</ele>
        <time>2018-12-28T02:39:49Z</time>
      </trkpt>
      <trkpt lat="36.277640" lon="-111.007140">
        <ele>1714.319</ele>
        <time>2018-12-28T02:40:09Z</time>
      </trkpt>
      <trkpt lat="36.276790" lon="-111.008150">
        <ele>1714.088</ele>
        <time>2018-12-28T02:40:29Z</time>
      </trkpt>
      <trkpt lat="36.275640" lon="-111.009530">
        <ele>1713.824</ele>
        <time>2018-12-28T02:40:49Z</time>
      </trkpt>
      <trkpt lat="36.272540" lon="-111.013210">
        <ele>1712.126</ele>
        <time>2018-12-28T02:41:09Z</time>
      </trkpt>
      <trkpt lat="36.271950" lon="-111.013910">
        <ele>1712.108</ele>
        <time>2018-12-28T02:41:29Z</time>
      </trkpt>
      <trkpt lat="36.271450" lon="-111.014470">
        <ele>1712.251</ele>
        <time>2018-12-28T02:41:49Z</time>
      </trkpt>
      <trkpt lat="36.271260" lon="-111.014670">
        <ele>1712.239</ele>
        <time>2018-12-28T02:42:09Z</time>
      </trkpt>
      <trkpt lat="36.271000" lon="-111.014920">
        <ele>1712.254</ele>
        <time>2018-12-28T02:42:29Z</time>
      </trkpt>
      <trkpt lat="36.270740" lon="-111.015150">
        <ele>1712.155</ele>
        <time>2018-12-28T02:42:49Z</time>
      </trkpt>
      <trkpt lat="36.270600" lon="-111.015280">
        <ele>1712.260</ele>
        <time>2018-12-28T02:43:09Z</time>
      </trkpt>
      <trkpt lat="36.270440" lon="-111.015410">
        <ele>1712.488</ele>
        <time>2018-12-28T02:43:29Z</time>
      </trkpt>
      <trkpt lat="36.270280" lon="-111.015520">
        <ele>1712.360</ele>
        <time>2018-12-28T02:43:49Z</time>
      </trkpt>
      <trkpt lat="36.270060" lon="-111.015680">
        <ele>1712.399</ele>
        <time>2018-12-28T02:44:09Z</time>
      </trkpt>
      <trkpt lat="36.269790" lon="-111.015850">
        <ele>1712.356</ele>
        <time>2018-12-28T02:44:29Z</time>
      </trkpt>
      <trkpt lat="36.269440" lon="-111.016050">
        <ele>1712.259</ele>
        <time>2018-12-28T02:44:49Z</time>
      </trkpt>
      <trkpt lat="36.269270" lon="-111.016150">
        <ele>1712.114</ele>
        <time>2018-12-28T02:45:09Z</time>
      </trkpt>
      <trkpt lat="36.269080" lon="-111.016240">
        <ele>1712.108</ele>
        <time>2018-12-28T02:45:29Z</time>
      </trkpt>
      <trkpt lat="36.268830" lon="-111.016350">
        <ele>1711.788</ele>
        <time>2018-12-28T02:45:49Z</time>
      </trkpt>
      <trkpt lat="36.268610" lon="-111.016440">
        <ele>1711.466</ele>
        <time>2018-12-28T02:46:09Z</time>
      </trkpt>
      <trkpt lat="36.268320" lon="-111.016540">
        <ele>1711.361</ele>
        <time>2018-12-28T02:46:29Z</time>
      </trkpt>
      <trkpt lat="36.267970" lon="-111.016660">
        <ele>1711.142</ele>
        <time>2018-12-28T02:46:49Z</time>
      </trkpt>
      <trkpt lat="36.266260" lon="-111.017180">
        <ele>1710.967</ele>
        <time>2018-12-28T02:47:09Z</time>
      </trkpt>
      <trkpt lat="36.265630" lon="-111.017390">
        <ele>1711.635</ele>
        <time>2018-12-28T02:47:29Z</time>
      </trkpt>
      <trkpt lat="36.263380" lon="-111.018080">
        <ele>1709.377</ele>
        <time>2018-12-28T02:47:49Z</time>
      </trkpt>
      <trkpt lat="36.261470" lon="-111.018660">
        <ele>1708.036</ele>
        <time>2018-12-28T02:48:09Z</time>
      </trkpt>
      <trkpt lat="36.260710" lon="-111.018900">
        <ele>1708.037</ele>
        <time>2018-12-28T02:48:29Z</time>
      </trkpt>
      <trkpt lat="36.259540" lon="-111.019260">
        <ele>1709.749</ele>
        <time>2018-12-28T02:48:49Z</time>
      </trkpt>
      <trkpt lat="36.257220" lon="-111.019980">
        <ele>1709.213</ele>
        <time>2018-12-28T02:49:09Z</time>
      </trkpt>
      <trkpt lat="36.255760" lon="-111.020420">
        <ele>1709.108</ele>
        <time>2018-12-28T02:49:29Z</time>
      </trkpt>
      <trkpt lat="36.255180" lon="-111.020600">
        <ele>1710.426</ele>
        <time>2018-12-28T02:49:49Z</time>
      </trkpt>
      <trkpt lat="36.250760" lon="-111.021960">
        <ele>1714.454</ele>
        <time>2018-12-28T02:50:09Z</time>
      </trkpt>
      <trkpt lat="36.250080" lon="-111.022180">
        <ele>1715.179</ele>
        <time>2018-12-28T02:50:29Z</time>
      </trkpt>
      <trkpt lat="36.248980" lon="-111.022510">
        <ele>1717.130</ele>
        <time>2018-12-28T02:50:49Z</time>
      </trkpt>
      <trkpt lat="36.248440" lon="-111.022670">
        <ele>1717.715</ele>
        <time>2018-12-28T02:51:09Z</time>
      </trkpt>
      <trkpt lat="36.246190" lon="-111.023370">
        <ele>1720.113</ele>
        <time>2018-12-28T02:51:29Z</time>
      </trkpt>
      <trkpt lat="36.245160" lon="-111.023680">
        <ele>1723.555</ele>
        <time>2018-12-28T02:51:49Z</time>
      </trkpt>
      <trkpt lat="36.242610" lon="-111.024460">
        <ele>1730.744</ele>
        <time>2018-12-28T02:52:09Z</time>
      </trkpt>
      <trkpt lat="36.241500" lon="-111.024820">
        <ele>1732.923</ele>
        <time>2018-12-28T02:52:29Z</time>
      </trkpt>
      <trkpt lat="36.240570" lon="-111.025100">
        <ele>1730.983</ele>
        <time>2018-12-28T02:52:49Z</time>
      </trkpt>
      <trkpt lat="36.239490" lon="-111.025440">
        <ele>1727.511</ele>
        <time>2018-12-28T02:53:09Z</time>
      </trkpt>
      <trkpt lat="36.238570" lon="-111.025710">
        <ele>1728.708</ele>
        <time>2018-12-28T02:53:29Z</time>
      </trkpt>
      <trkpt lat="36.238350" lon="-111.025800">
        <ele>1728.995</ele>
        <time>2018-12-28T02:53:49Z</time>
      </trkpt>
      <trkpt lat="36.238100" lon="-111.025890">
        <ele>1729.073</ele>
        <time>2018-12-28T02:54:09Z</time>
      </trkpt>
      <trkpt lat="36.237760" lon="-111.026050">
        <ele>1729.068</ele>
        <time>2018-12-28T02:54:29Z</time>
      </trkpt>
      <trkpt lat="36.237630" lon="-111.026110">
        <ele>1728.839</ele>
        <time>2018-12-28T02:54:49Z</time>
      </trkpt>
      <trkpt lat="36.237420" lon="-111.026220">
        <ele>1727.954</ele>
        <time>2018-12-28T02:55:09Z</time>
      </trkpt>
      <trkpt lat="36.236930" lon="-111.026500">
        <ele>1726.632</ele>
        <time>2018-12-28T02:55:29Z</time>
      </trkpt>
      <trkpt lat="36.236550" lon="-111.026770">
        <ele>1726.274</ele>
        <time>2018-12-28T02:55:49Z</time>
      </trkpt>
      <trkpt lat="36.236410" lon="-111.026870">
        <ele>1725.763</ele>
        <time>2018-12-28T02:56:09Z</time>
      </trkpt>
      <trkpt lat="36.236240" lon="-111.027000">
        <ele>1725.133</ele>
        <time>2018-12-28T02:56:29Z</time>
      </trkpt>
      <trkpt lat="36.236090" lon="-111.027120">
        <ele>1724.723</ele>
        <time>2018-12-28T02:56:49Z</time>
      </trkpt>
      <trkpt lat="36.234940" lon="-111.028150">
        <ele>1720.515</ele>
        <time>2018-12-28T02:57:09Z</time>
      </trkpt>
      <trkpt lat="36.233310" lon="-111.029570">
        <ele>1716.308</ele>
        <time>2018-12-28T02:57:29Z</time>
      </trkpt>
      <trkpt lat="36.232380" lon="-111.030420">
        <ele>1713.616</ele>
        <time>2018-12-28T02:57:49Z</time>
      </trkpt>
      <trkpt lat="36.230880" lon="-111.031740">
        <ele>1708.134</ele>
        <time>2018-12-28T02:58:09Z</time>
      </trkpt>
      <trkpt lat="36.230170" lon="-111.032380">
        <ele>1705.769</ele>
        <time>2018-12-28T02:58:29Z</time>
      </trkpt>
      <trkpt lat="36.228650" lon="-111.033720">
        <ele>1701.720</ele>
        <time>2018-12-28T02:58:49Z</time>
      </trkpt>
      <trkpt lat="36.223780" lon="-111.038050">
        <ele>1689.595</ele>
        <time>2018-12-28T02:59:09Z</time>
      </trkpt>
      <trkpt lat="36.215810" lon="-111.045100">
        <ele>1659.893</ele>
        <time>2018-12-28T02:59:29Z</time>
      </trkpt>
      <trkpt lat="36.211580" lon="-111.048840">
        <ele>1649.555</ele>
        <time>2018-12-28T02:59:49Z</time>
      </trkpt>
      <trkpt lat="36.205210" lon="-111.054490">
        <ele>1630.284</ele>
        <time>2018-12-28T03:00:09Z</time>
      </trkpt>
      <trkpt lat="36.204110" lon="-111.055460">
        <ele>1627.358</ele>
        <time>2018-12-28T03:00:29Z</time>
      </trkpt>
      <trkpt lat="36.199120" lon="-111.059890">
        <ele>1611.852</ele>
        <time>2018-12-28T03:00:49Z</time>
      </trkpt>
      <trkpt lat="36.197420" lon="-111.061400">
        <ele>1608.117</ele>
        <time>2018-12-28T03:01:09Z</time>
      </trkpt>
      <trkpt lat="36.196350" lon="-111.062340">
        <ele>1604.708</ele>
        <time>2018-12-28T03:01:29Z</time>
      </trkpt>
      <trkpt lat="36.194850" lon="-111.063670">
        <ele>1601.378</ele>
        <time>2018-12-28T03:01:49Z</time>
      </trkpt>
      <trkpt lat="36.193440" lon="-111.064900">
        <ele>1598.416</ele>
        <time>2018-12-28T03:02:09Z</time>
      </trkpt>
      <trkpt lat="36.191290" lon="-111.066820">
        <ele>1598.421</ele>
        <time>2018-12-28T03:02:29Z</time>
      </trkpt>
      <trkpt lat="36.190050" lon="-111.067910">
        <ele>1598.082</ele>
        <time>2018-12-28T03:02:49Z</time>
      </trkpt>
      <trkpt lat="36.188750" lon="-111.069050">
        <ele>1594.517</ele>
        <time>2018-12-28T03:03:09Z</time>
      </trkpt>
      <trkpt lat="36.187800" lon="-111.069930">
        <ele>1591.755</ele>
        <time>2018-12-28T03:03:29Z</time>
      </trkpt>
      <trkpt lat="36.186330" lon="-111.071220">
        <ele>1590.447</ele>
        <time>2018-12-28T03:03:49Z</time>
      </trkpt>
      <trkpt lat="36.184300" lon="-111.073020">
        <ele>1588.956</ele>
        <time>2018-12-28T03:04:09Z</time>
      </trkpt>
      <trkpt lat="36.183980" lon="-111.073310">
        <ele>1588.263</ele>
        <time>2018-12-28T03:04:29Z</time>
      </trkpt>
      <trkpt lat="36.183160" lon="-111.074030">
        <ele>1589.344</ele>
        <time>2018-12-28T03:04:49Z</time>
      </trkpt>
      <trkpt lat="36.181530" lon="-111.075450">
        <ele>1589.718</ele>
        <time>2018-12-28T03:05:09Z</time>
      </trkpt>
      <trkpt lat="36.181330" lon="-111.075630">
        <ele>1589.508</ele>
        <time>2018-12-28T03:05:29Z</time>
      </trkpt>
      <trkpt lat="36.180480" lon="-111.076460">
        <ele>1589.229</ele>
        <time>2018-12-28T03:05:49Z</time>
      </trkpt>
      <trkpt lat="36.179750" lon="-111.077210">
        <ele>1589.437</ele>
        <time>2018-12-28T03:06:09Z</time>
      </trkpt>
      <trkpt lat="36.176760" lon="-111.080480">
        <ele>1587.552</ele>
        <time>2018-12-28T03:06:29Z</time>
      </trkpt>
      <trkpt lat="36.176320" lon="-111.080970">
        <ele>1586.693</ele>
        <time>2018-12-28T03:06:49Z</time>
      </trkpt>
      <trkpt lat="36.176210" lon="-111.081090">
        <ele>1586.858</ele>
        <time>2018-12-28T03:07:09Z</time>
      </trkpt>
      <trkpt lat="36.175290" lon="-111.082090">
        <ele>1585.966</ele>
        <time>2018-12-28T03:07:29Z</time>
      </trkpt>
      <trkpt lat="36.173040" lon="-111.084550">
        <ele>1586.658</ele>
        <time>2018-12-28T03:07:49Z</time>
      </trkpt>
      <trkpt lat="36.170490" lon="-111.087330">
        <ele>1581.777</ele>
        <time>2018-12-28T03:08:09Z</time>
      </trkpt>
      <trkpt lat="36.169980" lon="-111.087890">
        <ele>1581.867</ele>
        <time>2018-12-28T03:08:29Z</time>
      </trkpt>
      <trkpt lat="36.169730" lon="-111.088160">
        <ele>1581.681</ele>
        <time>2018-12-28T03:08:49Z</time>
      </trkpt>
      <trkpt lat="36.168830" lon="-111.089150">
        <ele>1580.319</ele>
        <time>2018-12-28T03:09:09Z</time>
      </trkpt>
      <trkpt lat="36.168440" lon="-111.089580">
        <ele>1579.808</ele>
        <time>2018-12-28T03:09:29Z</time>
      </trkpt>
      <trkpt lat="36.167970" lon="-111.090120">
        <ele>1578.819</ele>
        <time>2018-12-28T03:09:49Z</time>
      </trkpt>
      <trkpt lat="36.167470" lon="-111.090720">
        <ele>1578.417</ele>
        <time>2018-12-28T03:10:09Z</time>
      </trkpt>
      <trkpt lat="36.166930" lon="-111.091400">
        <ele>1578.222</ele>
        <time>2018-12-28T03:10:29Z</time>
      </trkpt>
      <trkpt lat="36.166510" lon="-111.092000">
        <ele>1579.453</ele>
        <time>2018-12-28T03:10:49Z</time>
      </trkpt>
      <trkpt lat="36.166310" lon="-111.092280">
        <ele>1579.848</ele>
        <time>2018-12-28T03:11:09Z</time>
      </trkpt>
      <trkpt lat="36.166170" lon="-111.092500">
        <ele>1580.316</ele>
        <time>2018-12-28T03:11:29Z</time>
      </trkpt>
      <trkpt lat="36.166050" lon="-111.092690">
        <ele>1580.418</ele>
        <time>2018-12-28T03:11:49Z</time>
      </trkpt>
      <trkpt lat="36.165730" lon="-111.093210">
        <ele>1580.357</ele>
        <time>2018-12-28T03:12:09Z</time>
      </trkpt>
      <trkpt lat="36.165370" lon="-111.093800">
        <ele>1580.212</ele>
        <time>2018-12-28T03:12:29Z</time>
      </trkpt>
      <trkpt lat="36.165170" lon="-111.094200">
        <ele>1580.132</ele>
        <time>2018-12-28T03:12:49Z</time>
      </trkpt>
      <trkpt lat="36.164990" lon="-111.094570">
        <ele>1580.205</ele>
        <time>2018-12-28T03:13:09Z</time>
      </trkpt>
      <trkpt lat="36.164760" lon="-111.095070">
        <ele>1580.308</ele>
        <time>2018-12-28T03:13:29Z</time>
      </trkpt>
      <trkpt lat="36.164600" lon="-111.095430">
        <ele>1580.544</ele>
        <time>2018-12-28T03:13:49Z</time>
      </trkpt>
      <trkpt lat="36.164280" lon="-111.096210">
        <ele>1581.182</ele>
        <time>2018-12-28T03:14:09Z</time>
      </trkpt>
      <trkpt lat="36.163910" lon="-111.097220">
        <ele>1581.187</ele>
        <time>2018-12-28T03:14:29Z</time>
      </trkpt>
      <trkpt lat="36.163810" lon="-111.097500">
        <ele>1581.118</ele>
        <time>2018-12-28T03:14:49Z</time>
      </trkpt>
      <trkpt lat="36.163390" lon="-111.098650">
        <ele>1580.883</ele>
        <time>2018-12-28T03:15:09Z</time>
      </trkpt>
      <trkpt lat="36.163040" lon="-111.099600">
        <ele>1580.891</ele>
        <time>2018-12-28T03:15:29Z</time>
      </trkpt>
      <trkpt lat="36.160480" lon="-111.106650">
        <ele>1583.973</ele>
        <time>2018-12-28T03:15:49Z</time>
      </trkpt>
      <trkpt lat="36.158920" lon="-111.110880">
        <ele>1584.252</ele>
        <time>2018-12-28T03:16:09Z</time>
      </trkpt>
      <trkpt lat="36.158440" lon="-111.112200">
        <ele>1584.531</ele>
        <time>2018-12-28T03:16:29Z</time>
      </trkpt>
      <trkpt lat="36.157960" lon="-111.113550">
        <ele>1584.361</ele>
        <time>2018-12-28T03:16:49Z</time>
      </trkpt>
      <trkpt lat="36.157490" lon="-111.114860">
        <ele>1584.407</ele>
        <time>2018-12-28T03:17:09Z</time>
      </trkpt>
      <trkpt lat="36.157250" lon="-111.115520">
        <ele>1583.508</ele>
        <time>2018-12-28T03:17:29Z</time>
      </trkpt>
      <trkpt lat="36.157120" lon="-111.115910">
        <ele>1582.286</ele>
        <time>2018-12-28T03:17:49Z</time>
      </trkpt>
      <trkpt lat="36.155570" lon="-111.120170">
        <ele>1575.964</ele>
        <time>2018-12-28T03:18:09Z</time>
      </trkpt>
      <trkpt lat="36.155180" lon="-111.121250">
        <ele>1575.979</ele>
        <time>2018-12-28T03:18:29Z</time>
      </trkpt>
      <trkpt lat="36.153680" lon="-111.125380">
        <ele>1577.140</ele>
        <time>2018-12-28T03:18:49Z</time>
      </trkpt>
      <trkpt lat="36.152810" lon="-111.127770">
        <ele>1575.895</ele>
        <time>2018-12-28T03:19:09Z</time>
      </trkpt>
      <trkpt lat="36.152570" lon="-111.128420">
        <ele>1575.433</ele>
        <time>2018-12-28T03:19:29Z</time>
      </trkpt>
      <trkpt lat="36.152410" lon="-111.128850">
        <ele>1575.535</ele>
        <time>2018-12-28T03:19:49Z</time>
      </trkpt>
      <trkpt lat="36.152270" lon="-111.129250">
        <ele>1575.284</ele>
        <time>2018-12-28T03:20:09Z</time>
      </trkpt>
      <trkpt lat="36.151410" lon="-111.131620">
        <ele>1577.317</ele>
        <time>2018-12-28T03:20:29Z</time>
      </trkpt>
      <trkpt lat="36.150500" lon="-111.134100">
        <ele>1577.887</ele>
        <time>2018-12-28T03:20:49Z</time>
      </trkpt>
      <trkpt lat="36.150350" lon="-111.134520">
        <ele>1577.215</ele>
        <time>2018-12-28T03:21:09Z</time>
      </trkpt>
      <trkpt lat="36.149740" lon="-111.136210">
        <ele>1576.508</ele>
        <time>2018-12-28T03:21:29Z</time>
      </trkpt>
      <trkpt lat="36.149530" lon="-111.136800">
        <ele>1577.734</ele>
        <time>2018-12-28T03:21:49Z</time>
      </trkpt>
      <trkpt lat="36.149360" lon="-111.137260">
        <ele>1577.922</ele>
        <time>2018-12-28T03:22:09Z</time>
      </trkpt>
      <trkpt lat="36.149150" lon="-111.137830">
        <ele>1577.897</ele>
        <time>2018-12-28T03:22:29Z</time>
      </trkpt>
      <trkpt lat="36.147990" lon="-111.141010">
        <ele>1573.668</ele>
        <time>2018-12-28T03:22:49Z</time>
      </trkpt>
      <trkpt lat="36.147380" lon="-111.142680">
        <ele>1572.263</ele>
        <time>2018-12-28T03:23:09Z</time>
      </trkpt>
      <trkpt lat="36.146360" lon="-111.145470">
        <ele>1571.341</ele>
        <time>2018-12-28T03:23:29Z</time>
      </trkpt>
      <trkpt lat="36.146260" lon="-111.145770">
        <ele>1571.333</ele>
        <time>2018-12-28T03:23:49Z</time>
      </trkpt>
      <trkpt lat="36.145240" lon="-111.148580">
        <ele>1570.112</ele>
        <time>2018-12-28T03:24:09Z</time>
      </trkpt>
      <trkpt lat="36.144790" lon="-111.149810">
        <ele>1569.342</ele>
        <time>2018-12-28T03:24:29Z</time>
      </trkpt>
      <trkpt lat="36.143310" lon="-111.153880">
        <ele>1567.622</ele>
        <time>2018-12-28T03:24:49Z</time>
      </trkpt>
      <trkpt lat="36.142650" lon="-111.155690">
        <ele>1566.314</ele>
        <time>2018-12-28T03:25:09Z</time>
      </trkpt>
      <trkpt lat="36.141980" lon="-111.157540">
        <ele>1561.808</ele>
        <time>2018-12-28T03:25:29Z</time>
      </trkpt>
      <trkpt lat="36.141720" lon="-111.158260">
        <ele>1561.287</ele>
        <time>2018-12-28T03:25:49Z</time>
      </trkpt>
      <trkpt lat="36.138670" lon="-111.166660">
        <ele>1551.525</ele>
        <time>2018-12-28T03:26:09Z</time>
      </trkpt>
      <trkpt lat="36.137680" lon="-111.169360">
        <ele>1546.920</ele>
        <time>2018-12-28T03:26:29Z</time>
      </trkpt>
      <trkpt lat="36.133860" lon="-111.179900">
        <ele>1536.341</ele>
        <time>2018-12-28T03:26:49Z</time>
      </trkpt>
      <trkpt lat="36.132030" lon="-111.184980">
        <ele>1529.526</ele>
        <time>2018-12-28T03:27:09Z</time>
      </trkpt>
      <trkpt lat="36.130500" lon="-111.189180">
        <ele>1519.754</ele>
        <time>2018-12-28T03:27:29Z</time>
      </trkpt>
      <trkpt lat="36.130290" lon="-111.189740">
        <ele>1518.996</ele>
        <time>2018-12-28T03:27:49Z</time>
      </trkpt>
      <trkpt lat="36.130270" lon="-111.189800">
        <ele>1518.965</ele>
        <time>2018-12-28T03:28:09Z</time>
      </trkpt>
      <trkpt lat="36.130060" lon="-111.190330">
        <ele>1518.437</ele>
        <time>2018-12-28T03:28:29Z</time>
      </trkpt>
      <trkpt lat="36.129760" lon="-111.191040">
        <ele>1515.749</ele>
        <time>2018-12-28T03:28:49Z</time>
      </trkpt>
      <trkpt lat="36.128950" lon="-111.192920">
        <ele>1512.713</ele>
        <time>2018-12-28T03:29:09Z</time>
      </trkpt>
      <trkpt lat="36.128400" lon="-111.194160">
        <ele>1508.308</ele>
        <time>2018-12-28T03:29:29Z</time>
      </trkpt>
      <trkpt lat="36.127840" lon="-111.195440">
        <ele>1505.876</ele>
        <time>2018-12-28T03:29:49Z</time>
      </trkpt>
      <trkpt lat="36.127520" lon="-111.196170">
        <ele>1502.534</ele>
        <time>2018-12-28T03:30:09Z</time>
      </trkpt>
      <trkpt lat="36.126560" lon="-111.198360">
        <ele>1496.049</ele>
        <time>2018-12-28T03:30:29Z</time>
      </trkpt>
      <trkpt lat="36.125920" lon="-111.199860">
        <ele>1492.290</ele>
        <time>2018-12-28T03:30:49Z</time>
      </trkpt>
      <trkpt lat="36.125440" lon="-111.201090">
        <ele>1488.155</ele>
        <time>2018-12-28T03:31:09Z</time>
      </trkpt>
      <trkpt lat="36.125260" lon="-111.201570">
        <ele>1487.673</ele>
        <time>2018-12-28T03:31:29Z</time>
      </trkpt>
      <trkpt lat="36.125110" lon="-111.202000">
        <ele>1487.375</ele>
        <time>2018-12-28T03:31:49Z</time>
      </trkpt>
      <trkpt lat="36.125010" lon="-111.202310">
        <ele>1487.084</ele>
        <time>2018-12-28T03:32:09Z</time>
      </trkpt>
      <trkpt lat="36.124920" lon="-111.202590">
        <ele>1486.614</ele>
        <time>2018-12-28T03:32:29Z</time>
      </trkpt>
      <trkpt lat="36.124750" lon="-111.203100">
        <ele>1485.254</ele>
        <time>2018-12-28T03:32:49Z</time>
      </trkpt>
      <trkpt lat="36.124460" lon="-111.204040">
        <ele>1482.509</ele>
        <time>2018-12-28T03:33:09Z</time>
      </trkpt>
      <trkpt lat="36.124240" lon="-111.204790">
        <ele>1480.808</ele>
        <time>2018-12-28T03:33:29Z</time>
      </trkpt>
      <trkpt lat="36.124040" lon="-111.205560">
        <ele>1478.874</ele>
        <time>2018-12-28T03:33:49Z</time>
      </trkpt>
      <trkpt lat="36.123890" lon="-111.206170">
        <ele>1477.542</ele>
        <time>2018-12-28T03:34:09Z</time>
      </trkpt>
      <trkpt lat="36.123820" lon="-111.206450">
        <ele>1476.717</ele>
        <time>2018-12-28T03:34:29Z</time>
      </trkpt>
      <trkpt lat="36.123580" lon="-111.207510">
        <ele>1475.728</ele>
        <time>2018-12-28T03:34:49Z</time>
      </trkpt>
      <trkpt lat="36.123260" lon="-111.209230">
        <ele>1472.953</ele>
        <time>2018-12-28T03:35:09Z</time>
      </trkpt>
      <trkpt lat="36.123160" lon="-111.209710">
        <ele>1470.181</ele>
        <time>2018-12-28T03:35:29Z</time>
      </trkpt>
      <trkpt lat="36.123030" lon="-111.210620">
        <ele>1469.173</ele>
        <time>2018-12-28T03:35:49Z</time>
      </trkpt>
      <trkpt lat="36.122960" lon="-111.211150">
        <ele>1469.472</ele>
        <time>2018-12-28T03:36:09Z</time>
      </trkpt>
      <trkpt lat="36.122890" lon="-111.211740">
        <ele>1469.873</ele>
        <time>2018-12-28T03:36:29Z</time>
      </trkpt>
      <trkpt lat="36.122830" lon="-111.212210">
        <ele>1470.685</ele>
        <time>2018-12-28T03:36:49Z</time>
      </trkpt>
      <trkpt lat="36.122820" lon="-111.212290">
        <ele>1470.813</ele>
        <time>2018-12-28T03:37:09Z</time>
      </trkpt>
      <trkpt lat="36.122550" lon="-111.214410">
        <ele>1476.108</ele>
        <time>2018-12-28T03:37:29Z</time>
      </trkpt>
      <trkpt lat="36.122420" lon="-111.215410">
        <ele>1477.790</ele>
        <time>2018-12-28T03:37:49Z</time>
      </trkpt>
      <trkpt lat="36.122350" lon="-111.216090">
        <ele>1479.268</ele>
        <time>2018-12-28T03:38:09Z</time>
      </trkpt>
      <trkpt lat="36.122280" lon="-111.216600">
        <ele>1479.663</ele>
        <time>2018-12-28T03:38:29Z</time>
      </trkpt>
      <trkpt lat="36.122090" lon="-111.218160">
        <ele>1481.144</ele>
        <time>2018-12-28T03:38:49Z</time>
      </trkpt>
      <trkpt lat="36.122060" lon="-111.218400">
        <ele>1481.359</ele>
        <time>2018-12-28T03:39:09Z</time>
      </trkpt>
      <trkpt lat="36.122010" lon="-111.218830">
        <ele>1481.837</ele>
        <time>2018-12-28T03:39:29Z</time>
      </trkpt>
      <trkpt lat="36.121980" lon="-111.219100">
        <ele>1482.179</ele>
        <time>2018-12-28T03:39:49Z</time>
      </trkpt>
      <trkpt lat="36.121910" lon="-111.219620">
        <ele>1482.198</ele>
        <time>2018-12-28T03:40:09Z</time>
      </trkpt>
      <trkpt lat="36.121850" lon="-111.220080">
        <ele>1482.667</ele>
        <time>2018-12-28T03:40:29Z</time>
      </trkpt>
      <trkpt lat="36.121800" lon="-111.220410">
        <ele>1482.881</ele>
        <time>2018-12-28T03:40:49Z</time>
      </trkpt>
      <trkpt lat="36.121740" lon="-111.220900">
        <ele>1482.619</ele>
        <time>2018-12-28T03:41:09Z</time>
      </trkpt>
      <trkpt lat="36.121590" lon="-111.222050">
        <ele>1481.808</ele>
        <time>2018-12-28T03:41:29Z</time>
      </trkpt>
      <trkpt lat="36.121560" lon="-111.222340">
        <ele>1481.249</ele>
        <time>2018-12-28T03:41:49Z</time>
      </trkpt>
      <trkpt lat="36.121450" lon="-111.223350">
        <ele>1479.137</ele>
        <time>2018-12-28T03:42:09Z</time>
      </trkpt>
      <trkpt lat="36.121400" lon="-111.223750">
        <ele>1477.992</ele>
        <time>2018-12-28T03:42:29Z</time>
      </trkpt>
      <trkpt lat="36.121330" lon="-111.224240">
        <ele>1477.813</ele>
        <time>2018-12-28T03:42:49Z</time>
      </trkpt>
      <trkpt lat="36.121310" lon="-111.224360">
        <ele>1477.888</ele>
        <time>2018-12-28T03:43:09Z</time>
      </trkpt>
      <trkpt lat="36.121200" lon="-111.224990">
        <ele>1477.966</ele>
        <time>2018-12-28T03:43:29Z</time>
      </trkpt>
      <trkpt lat="36.121170" lon="-111.225200">
        <ele>1478.038</ele>
        <time>2018-12-28T03:43:49Z</time>
      </trkpt>
      <trkpt lat="36.121070" lon="-111.225600">
        <ele>1477.677</ele>
        <time>2018-12-28T03:44:09Z</time>
      </trkpt>
      <trkpt lat="36.121000" lon="-111.225830">
        <ele>1477.276</ele>
        <time>2018-12-28T03:44:29Z</time>
      </trkpt>
      <trkpt lat="36.120930" lon="-111.226050">
        <ele>1476.890</ele>
        <time>2018-12-28T03:44:49Z</time>
      </trkpt>
      <trkpt lat="36.120740" lon="-111.226640">
        <ele>1476.319</ele>
        <time>2018-12-28T03:45:09Z</time>
      </trkpt>
      <trkpt lat="36.120450" lon="-111.227340">
        <ele>1475.008</ele>
        <time>2018-12-28T03:45:29Z</time>
      </trkpt>
      <trkpt lat="36.120340" lon="-111.227560">
        <ele>1474.730</ele>
        <time>2018-12-28T03:45:49Z</time>
      </trkpt>
      <trkpt lat="36.120280" lon="-111.227680">
        <ele>1474.798</ele>
        <time>2018-12-28T03:46:09Z</time>
      </trkpt>
      <trkpt lat="36.120190" lon="-111.227840">
        <ele>1474.483</ele>
        <time>2018-12-28T03:46:29Z</time>
      </trkpt>
      <trkpt lat="36.120130" lon="-111.227960">
        <ele>1474.284</ele>
        <time>2018-12-28T03:46:49Z</time>
      </trkpt>
      <trkpt lat="36.120100" lon="-111.228030">
        <ele>1474.099</ele>
        <time>2018-12-28T03:47:09Z</time>
      </trkpt>
      <trkpt lat="36.120000" lon="-111.228210">
        <ele>1473.647</ele>
        <time>2018-12-28T03:47:29Z</time>
      </trkpt>
      <trkpt lat="36.119890" lon="-111.228410">
        <ele>1473.029</ele>
        <time>2018-12-28T03:47:49Z</time>
      </trkpt>
      <trkpt lat="36.119820" lon="-111.228520">
        <ele>1472.628</ele>
        <time>2018-12-28T03:48:09Z</time>
      </trkpt>
      <trkpt lat="36.119780" lon="-111.228590">
        <ele>1472.499</ele>
        <time>2018-12-28T03:48:29Z</time>
      </trkpt>
      <trkpt lat="36.119590" lon="-111.228890">
        <ele>1471.407</ele>
        <time>2018-12-28T03:48:49Z</time>
      </trkpt>
      <trkpt lat="36.119540" lon="-111.228970">
        <ele>1471.327</ele>
        <time>2018-12-28T03:49:09Z</time>
      </trkpt>
      <trkpt lat="36.119340" lon="-111.229230">
        <ele>1470.908</ele>
        <time>2018-12-28T03:49:29Z</time>
      </trkpt>
      <trkpt lat="36.119240" lon="-111.229360">
        <ele>1470.672</ele>
        <time>2018-12-28T03:49:49Z</time>
      </trkpt>
      <trkpt lat="36.119140" lon="-111.229480">
        <ele>1470.130</ele>
        <time>2018-12-28T03:50:09Z</time>
      </trkpt>
      <trkpt lat="36.118780" lon="-111.229900">
        <ele>1468.655</ele>
        <time>2018-12-28T03:50:29Z</time>
      </trkpt>
      <trkpt lat="36.118720" lon="-111.229970">
        <ele>1468.356</ele>
        <time>2018-12-28T03:50:49Z</time>
      </trkpt>
      <trkpt lat="36.118660" lon="-111.230030">
        <ele>1468.091</ele>
        <time>2018-12-28T03:51:09Z</time>
      </trkpt>
      <trkpt lat="36.118480" lon="-111.230220">
        <ele>1466.999</ele>
        <time>2018-12-28T03:51:29Z</time>
      </trkpt>
      <trkpt lat="36.118420" lon="-111.230280">
        <ele>1466.651</ele>
        <time>2018-12-28T03:51:49Z</time>
      </trkpt>
      <trkpt lat="36.118300" lon="-111.230410">
        <ele>1466.020</ele>
        <time>2018-12-28T03:52:09Z</time>
      </trkpt>
      <trkpt lat="36.118090" lon="-111.230620">
        <ele>1465.038</ele>
        <time>2018-12-28T03:52:29Z</time>
      </trkpt>
      <trkpt lat="36.117910" lon="-111.230780">
        <ele>1464.570</ele>
        <time>2018-12-28T03:52:49Z</time>
      </trkpt>
      <trkpt lat="36.117560" lon="-111.231050">
        <ele>1463.317</ele>
        <time>2018-12-28T03:53:09Z</time>
      </trkpt>
      <trkpt lat="36.117300" lon="-111.231230">
        <ele>1462.408</ele>
        <time>2018-12-28T03:53:29Z</time>
      </trkpt>
      <trkpt lat="36.117040" lon="-111.231400">
        <ele>1459.486</ele>
        <time>2018-12-28T03:53:49Z</time>
      </trkpt>
      <trkpt lat="36.116990" lon="-111.231440">
        <ele>1459.414</ele>
        <time>2018-12-28T03:54:09Z</time>
      </trkpt>
      <trkpt lat="36.116310" lon="-111.231810">
        <ele>1458.259</ele>
        <time>2018-12-28T03:54:29Z</time>
      </trkpt>
      <trkpt lat="36.115510" lon="-111.232250">
        <ele>1452.630</ele>
        <time>2018-12-28T03:54:49Z</time>
      </trkpt>
      <trkpt lat="36.114880" lon="-111.232600">
        <ele>1447.285</ele>
        <time>2018-12-28T03:55:09Z</time>
      </trkpt>
      <trkpt lat="36.114450" lon="-111.232820">
        <ele>1443.063</ele>
        <time>2018-12-28T03:55:29Z</time>
      </trkpt>
      <trkpt lat="36.113920" lon="-111.233100">
        <ele>1437.915</ele>
        <time>2018-12-28T03:55:49Z</time>
      </trkpt>
      <trkpt lat="36.113420" lon="-111.233370">
        <ele>1435.024</ele>
        <time>2018-12-28T03:56:09Z</time>
      </trkpt>
      <trkpt lat="36.113120" lon="-111.233530">
        <ele>1432.735</ele>
        <time>2018-12-28T03:56:29Z</time>
      </trkpt>
      <trkpt lat="36.112520" lon="-111.233850">
        <ele>1429.286</ele>
        <time>2018-12-28T03:56:49Z</time>
      </trkpt>
      <trkpt lat="36.112380" lon="-111.233930">
        <ele>1429.614</ele>
        <time>2018-12-28T03:57:09Z</time>
      </trkpt>
      <trkpt lat="36.112180" lon="-111.234040">
        <ele>1429.208</ele>
        <time>2018-12-28T03:57:29Z</time>
      </trkpt>
      <trkpt lat="36.111930" lon="-111.234190">
        <ele>1428.416</ele>
        <time>2018-12-28T03:57:49Z</time>
      </trkpt>
      <trkpt lat="36.111780" lon="-111.234280">
        <ele>1426.864</ele>
        <time>2018-12-28T03:58:09Z</time>
      </trkpt>
      <trkpt lat="36.111650" lon="-111.234370">
        <ele>1427.549</ele>
        <time>2018-12-28T03:58:29Z</time>
      </trkpt>
      <trkpt lat="36.111520" lon="-111.234460">
        <ele>1426.090</ele>
        <time>2018-12-28T03:58:49Z</time>
      </trkpt>
      <trkpt lat="36.111430" lon="-111.234540">
        <ele>1424.695</ele>
        <time>2018-12-28T03:59:09Z</time>
      </trkpt>
      <trkpt lat="36.111330" lon="-111.234630">
        <ele>1423.233</ele>
        <time>2018-12-28T03:59:29Z</time>
      </trkpt>
      <trkpt lat="36.111200" lon="-111.234740">
        <ele>1422.095</ele>
        <time>2018-12-28T03:59:49Z</time>
      </trkpt>
      <trkpt lat="36.111060" lon="-111.234890">
        <ele>1423.254</ele>
        <time>2018-12-28T04:00:09Z</time>
      </trkpt>
      <trkpt lat="36.110890" lon="-111.235080">
        <ele>1424.751</ele>
        <time>2018-12-28T04:00:29Z</time>
      </trkpt>
      <trkpt lat="36.110770" lon="-111.235230">
        <ele>1422.601</ele>
        <time>2018-12-28T04:00:49Z</time>
      </trkpt>
      <trkpt lat="36.110590" lon="-111.235470">
        <ele>1418.311</ele>
        <time>2018-12-28T04:01:09Z</time>
      </trkpt>
      <trkpt lat="36.110400" lon="-111.235780">
        <ele>1417.208</ele>
        <time>2018-12-28T04:01:29Z</time>
      </trkpt>
      <trkpt lat="36.110230" lon="-111.236140">
        <ele>1417.368</ele>
        <time>2018-12-28T04:01:49Z</time>
      </trkpt>
      <trkpt lat="36.110130" lon="-111.236350">
        <ele>1415.876</ele>
        <time>2018-12-28T04:02:09Z</time>
      </trkpt>
      <trkpt lat="36.110050" lon="-111.236550">
        <ele>1414.821</ele>
        <time>2018-12-28T04:02:29Z</time>
      </trkpt>
      <trkpt lat="36.109980" lon="-111.236760">
        <ele>1414.392</ele>
        <time>2018-12-28T04:02:49Z</time>
      </trkpt>
      <trkpt lat="36.109940" lon="-111.236900">
        <ele>1413.747</ele>
        <time>2018-12-28T04:03:09Z</time>
      </trkpt>
      <trkpt lat="36.109830" lon="-111.237280">
        <ele>1413.155</ele>
        <time>2018-12-28T04:03:29Z</time>
      </trkpt>
      <trkpt lat="36.109200" lon="-111.239860">
        <ele>1408.677</ele>
        <time>2018-12-28T04:03:49Z</time>
      </trkpt>
      <trkpt lat="36.108940" lon="-111.240960">
        <ele>1408.076</ele>
        <time>2018-12-28T04:04:09Z</time>
      </trkpt>
      <trkpt lat="36.108780" lon="-111.241570">
        <ele>1407.314</ele>
        <time>2018-12-28T04:04:29Z</time>
      </trkpt>
      <trkpt lat="36.108650" lon="-111.242120">
        <ele>1406.454</ele>
        <time>2018-12-28T04:04:49Z</time>
      </trkpt>
      <trkpt lat="36.108460" lon="-111.242910">
        <ele>1403.509</ele>
        <time>2018-12-28T04:05:09Z</time>
      </trkpt>
      <trkpt lat="36.108130" lon="-111.244280">
        <ele>1402.008</ele>
        <time>2018-12-28T04:05:29Z</time>
      </trkpt>
      <trkpt lat="36.108080" lon="-111.244500">
        <ele>1402.034</ele>
        <time>2018-12-28T04:05:49Z</time>
      </trkpt>
      <trkpt lat="36.108040" lon="-111.244640">
        <ele>1402.062</ele>
        <time>2018-12-28T04:06:09Z</time>
      </trkpt>
      <trkpt lat="36.108010" lon="-111.244800">
        <ele>1402.257</ele>
        <time>2018-12-28T04:06:29Z</time>
      </trkpt>
      <trkpt lat="36.107940" lon="-111.245040">
        <ele>1401.728</ele>
        <time>2018-12-28T04:06:49Z</time>
      </trkpt>
      <trkpt lat="36.107930" lon="-111.245120">
        <ele>1401.613</ele>
        <time>2018-12-28T04:07:09Z</time>
      </trkpt>
      <trkpt lat="36.107850" lon="-111.245550">
        <ele>1400.821</ele>
        <time>2018-12-28T04:07:29Z</time>
      </trkpt>
      <trkpt lat="36.107800" lon="-111.245870">
        <ele>1400.583</ele>
        <time>2018-12-28T04:07:49Z</time>
      </trkpt>
      <trkpt lat="36.107580" lon="-111.247730">
        <ele>1401.332</ele>
        <time>2018-12-28T04:08:09Z</time>
      </trkpt>
      <trkpt lat="36.107560" lon="-111.247960">
        <ele>1400.836</ele>
        <time>2018-12-28T04:08:29Z</time>
      </trkpt>
      <trkpt lat="36.107490" lon="-111.248530">
        <ele>1400.517</ele>
        <time>2018-12-28T04:08:49Z</time>
      </trkpt>
      <trkpt lat="36.107400" lon="-111.249310">
        <ele>1398.818</ele>
        <time>2018-12-28T04:09:09Z</time>
      </trkpt>
      <trkpt lat="36.107310" lon="-111.250100">
        <ele>1397.308</ele>
        <time>2018-12-28T04:09:29Z</time>
      </trkpt>
      <trkpt lat="36.107290" lon="-111.250320">
        <ele>1397.356</ele>
        <time>2018-12-28T04:09:49Z</time>
      </trkpt>
      <trkpt lat="36.107140" lon="-111.251600">
        <ele>1398.364</ele>
        <time>2018-12-28T04:10:09Z</time>
      </trkpt>
      <trkpt lat="36.107050" lon="-111.252310">
        <ele>1398.179</ele>
        <time>2018-12-28T04:10:29Z</time>
      </trkpt>
      <trkpt lat="36.106960" lon="-111.253080">
        <ele>1396.980</ele>
        <time>2018-12-28T04:10:49Z</time>
      </trkpt>
      <trkpt lat="36.106740" lon="-111.254970">
        <ele>1395.235</ele>
        <time>2018-12-28T04:11:09Z</time>
      </trkpt>
      <trkpt lat="36.106490" lon="-111.257010">
        <ele>1395.793</ele>
        <time>2018-12-28T04:11:29Z</time>
      </trkpt>
      <trkpt lat="36.106380" lon="-111.257860">
        <ele>1395.665</ele>
        <time>2018-12-28T04:11:49Z</time>
      </trkpt>
      <trkpt lat="36.106310" lon="-111.258500">
        <ele>1395.894</ele>
        <time>2018-12-28T04:12:09Z</time>
      </trkpt>
      <trkpt lat="36.106190" lon="-111.259520">
        <ele>1394.758</ele>
        <time>2018-12-28T04:12:29Z</time>
      </trkpt>
      <trkpt lat="36.105730" lon="-111.263460">
        <ele>1393.052</ele>
        <time>2018-12-28T04:12:49Z</time>
      </trkpt>
      <trkpt lat="36.105510" lon="-111.265240">
        <ele>1392.517</ele>
        <time>2018-12-28T04:13:09Z</time>
      </trkpt>
      <trkpt lat="36.105100" lon="-111.268780">
        <ele>1391.708</ele>
        <time>2018-12-28T04:13:29Z</time>
      </trkpt>
      <trkpt lat="36.104720" lon="-111.271890">
        <ele>1389.378</ele>
        <time>2018-12-28T04:13:49Z</time>
      </trkpt>
      <trkpt lat="36.104600" lon="-111.272970">
        <ele>1389.346</ele>
        <time>2018-12-28T04:14:09Z</time>
      </trkpt>
      <trkpt lat="36.104250" lon="-111.275910">
        <ele>1389.091</ele>
        <time>2018-12-28T04:14:29Z</time>
      </trkpt>
      <trkpt lat="36.104150" lon="-111.276780">
        <ele>1389.282</ele>
        <time>2018-12-28T04:14:49Z</time>
      </trkpt>
      <trkpt lat="36.104120" lon="-111.277020">
        <ele>1389.457</ele>
        <time>2018-12-28T04:15:09Z</time>
      </trkpt>
      <trkpt lat="36.103970" lon="-111.278270">
        <ele>1390.725</ele>
        <time>2018-12-28T04:15:29Z</time>
      </trkpt>
      <trkpt lat="36.103820" lon="-111.279540">
        <ele>1396.167</ele>
        <time>2018-12-28T04:15:49Z</time>
      </trkpt>
      <trkpt lat="36.103710" lon="-111.280450">
        <ele>1395.016</ele>
        <time>2018-12-28T04:16:09Z</time>
      </trkpt>
      <trkpt lat="36.103430" lon="-111.282790">
        <ele>1393.972</ele>
        <time>2018-12-28T04:16:29Z</time>
      </trkpt>
      <trkpt lat="36.103320" lon="-111.283640">
        <ele>1394.113</ele>
        <time>2018-12-28T04:16:49Z</time>
      </trkpt>
      <trkpt lat="36.103210" lon="-111.284540">
        <ele>1397.014</ele>
        <time>2018-12-28T04:17:09Z</time>
      </trkpt>
      <trkpt lat="36.103170" lon="-111.284980">
        <ele>1397.608</ele>
        <time>2018-12-28T04:17:29Z</time>
      </trkpt>
      <trkpt lat="36.103070" lon="-111.285780">
        <ele>1398.280</ele>
        <time>2018-12-28T04:17:49Z</time>
      </trkpt>
      <trkpt lat="36.102980" lon="-111.286550">
        <ele>1400.338</ele>
        <time>2018-12-28T04:18:09Z</time>
      </trkpt>
      <trkpt lat="36.102860" lon="-111.287520">
        <ele>1401.613</ele>
        <time>2018-12-28T04:18:29Z</time>
      </trkpt>
      <trkpt lat="36.102760" lon="-111.288430">
        <ele>1403.024</ele>
        <time>2018-12-28T04:18:49Z</time>
      </trkpt>
      <trkpt lat="36.102650" lon="-111.289280">
        <ele>1398.189</ele>
        <time>2018-12-28T04:19:09Z</time>
      </trkpt>
      <trkpt lat="36.102550" lon="-111.290200">
        <ele>1393.127</ele>
        <time>2018-12-28T04:19:29Z</time>
      </trkpt>
      <trkpt lat="36.102430" lon="-111.291150">
        <ele>1389.449</ele>
        <time>2018-12-28T04:19:49Z</time>
      </trkpt>
      <trkpt lat="36.102270" lon="-111.292550">
        <ele>1384.758</ele>
        <time>2018-12-28T04:20:09Z</time>
      </trkpt>
      <trkpt lat="36.102170" lon="-111.293360">
        <ele>1384.726</ele>
        <time>2018-12-28T04:20:29Z</time>
      </trkpt>
      <trkpt lat="36.102110" lon="-111.293900">
        <ele>1384.747</ele>
        <time>2018-12-28T04:20:49Z</time>
      </trkpt>
      <trkpt lat="36.102080" lon="-111.294170">
        <ele>1384.711</ele>
        <time>2018-12-28T04:21:09Z</time>
      </trkpt>
      <trkpt lat="36.102030" lon="-111.294600">
        <ele>1384.608</ele>
        <time>2018-12-28T04:21:29Z</time>
      </trkpt>
      <trkpt lat="36.101980" lon="-111.295040">
        <ele>1384.645</ele>
        <time>2018-12-28T04:21:49Z</time>
      </trkpt>
      <trkpt lat="36.101940" lon="-111.295470">
        <ele>1384.723</ele>
        <time>2018-12-28T04:22:09Z</time>
      </trkpt>
      <trkpt lat="36.101880" lon="-111.296280">
        <ele>1384.718</ele>
        <time>2018-12-28T04:22:29Z</time>
      </trkpt>
      <trkpt lat="36.101850" lon="-111.296810">
        <ele>1384.749</ele>
        <time>2018-12-28T04:22:49Z</time>
      </trkpt>
      <trkpt lat="36.101800" lon="-111.297480">
        <ele>1384.794</ele>
        <time>2018-12-28T04:23:09Z</time>
      </trkpt>
      <trkpt lat="36.101770" lon="-111.297890">
        <ele>1384.692</ele>
        <time>2018-12-28T04:23:29Z</time>
      </trkpt>
      <trkpt lat="36.101710" lon="-111.298760">
        <ele>1384.694</ele>
        <time>2018-12-28T04:23:49Z</time>
      </trkpt>
      <trkpt lat="36.101680" lon="-111.299230">
        <ele>1384.713</ele>
        <time>2018-12-28T04:24:09Z</time>
      </trkpt>
      <trkpt lat="36.101630" lon="-111.300030">
        <ele>1384.754</ele>
        <time>2018-12-28T04:24:29Z</time>
      </trkpt>
      <trkpt lat="36.101580" lon="-111.300690">
        <ele>1384.756</ele>
        <time>2018-12-28T04:24:49Z</time>
      </trkpt>
      <trkpt lat="36.101520" lon="-111.301520">
        <ele>1386.711</ele>
        <time>2018-12-28T04:25:09Z</time>
      </trkpt>
      <trkpt lat="36.101440" lon="-111.302830">
        <ele>1387.908</ele>
        <time>2018-12-28T04:25:29Z</time>
      </trkpt>
      <trkpt lat="36.101360" lon="-111.303910">
        <ele>1388.888</ele>
        <time>2018-12-28T04:25:49Z</time>
      </trkpt>
      <trkpt lat="36.101270" lon="-111.305200">
        <ele>1390.296</ele>
        <time>2018-12-28T04:26:09Z</time>
      </trkpt>
      <trkpt lat="36.101220" lon="-111.306000">
        <ele>1390.251</ele>
        <time>2018-12-28T04:26:29Z</time>
      </trkpt>
      <trkpt lat="36.101200" lon="-111.306300">
        <ele>1390.282</ele>
        <time>2018-12-28T04:26:49Z</time>
      </trkpt>
      <trkpt lat="36.101170" lon="-111.306810">
        <ele>1390.517</ele>
        <time>2018-12-28T04:27:09Z</time>
      </trkpt>
      <trkpt lat="36.101120" lon="-111.307480">
        <ele>1390.785</ele>
        <time>2018-12-28T04:27:29Z</time>
      </trkpt>
      <trkpt lat="36.101040" lon="-111.308580">
        <ele>1391.497</ele>
        <time>2018-12-28T04:27:49Z</time>
      </trkpt>
      <trkpt lat="36.101010" lon="-111.309110">
        <ele>1392.746</ele>
        <time>2018-12-28T04:28:09Z</time>
      </trkpt>
      <trkpt lat="36.100970" lon="-111.309670">
        <ele>1393.943</ele>
        <time>2018-12-28T04:28:29Z</time>
      </trkpt>
      <trkpt lat="36.100910" lon="-111.310550">
        <ele>1395.764</ele>
        <time>2018-12-28T04:28:49Z</time>
      </trkpt>
      <trkpt lat="36.100880" lon="-111.310970">
        <ele>1396.810</ele>
        <time>2018-12-28T04:29:09Z</time>
      </trkpt>
      <trkpt lat="36.100860" lon="-111.311330">
        <ele>1397.008</ele>
        <time>2018-12-28T04:29:29Z</time>
      </trkpt>
      <trkpt lat="36.100810" lon="-111.312040">
        <ele>1398.727</ele>
        <time>2018-12-28T04:29:49Z</time>
      </trkpt>
      <trkpt lat="36.100750" lon="-111.312850">
        <ele>1400.455</ele>
        <time>2018-12-28T04:30:09Z</time>
      </trkpt>
      <trkpt lat="36.100600" lon="-111.314960">
        <ele>1402.460</ele>
        <time>2018-12-28T04:30:29Z</time>
      </trkpt>
      <trkpt lat="36.100610" lon="-111.315400">
        <ele>1403.081</ele>
        <time>2018-12-28T04:30:49Z</time>
      </trkpt>
      <trkpt lat="36.100600" lon="-111.315640">
        <ele>1403.016</ele>
        <time>2018-12-28T04:31:09Z</time>
      </trkpt>
      <trkpt lat="36.100520" lon="-111.316740">
        <ele>1403.064</ele>
        <time>2018-12-28T04:31:29Z</time>
      </trkpt>
      <trkpt lat="36.100500" lon="-111.316940">
        <ele>1402.946</ele>
        <time>2018-12-28T04:31:49Z</time>
      </trkpt>
      <trkpt lat="36.100400" lon="-111.318400">
        <ele>1399.475</ele>
        <time>2018-12-28T04:32:09Z</time>
      </trkpt>
      <trkpt lat="36.100390" lon="-111.318640">
        <ele>1399.152</ele>
        <time>2018-12-28T04:32:29Z</time>
      </trkpt>
      <trkpt lat="36.100320" lon="-111.319460">
        <ele>1397.353</ele>
        <time>2018-12-28T04:32:49Z</time>
      </trkpt>
      <trkpt lat="36.100260" lon="-111.319920">
        <ele>1396.908</ele>
        <time>2018-12-28T04:33:09Z</time>
      </trkpt>
      <trkpt lat="36.100180" lon="-111.321170">
        <ele>1395.508</ele>
        <time>2018-12-28T04:33:29Z</time>
      </trkpt>
      <trkpt lat="36.100140" lon="-111.321830">
        <ele>1392.658</ele>
        <time>2018-12-28T04:33:49Z</time>
      </trkpt>
      <trkpt lat="36.100030" lon="-111.323330">
        <ele>1390.516</ele>
        <time>2018-12-28T04:34:09Z</time>
      </trkpt>
      <trkpt lat="36.099980" lon="-111.324220">
        <ele>1388.321</ele>
        <time>2018-12-28T04:34:29Z</time>
      </trkpt>
      <trkpt lat="36.099920" lon="-111.325030">
        <ele>1387.262</ele>
        <time>2018-12-28T04:34:49Z</time>
      </trkpt>
      <trkpt lat="36.099850" lon="-111.326050">
        <ele>1386.197</ele>
        <time>2018-12-28T04:35:09Z</time>
      </trkpt>
      <trkpt lat="36.099770" lon="-111.327240">
        <ele>1384.455</ele>
        <time>2018-12-28T04:35:29Z</time>
      </trkpt>
      <trkpt lat="36.099690" lon="-111.328340">
        <ele>1381.757</ele>
        <time>2018-12-28T04:35:49Z</time>
      </trkpt>
      <trkpt lat="36.099590" lon="-111.329800">
        <ele>1378.736</ele>
        <time>2018-12-28T04:36:09Z</time>
      </trkpt>
      <trkpt lat="36.099320" lon="-111.333790">
        <ele>1382.018</ele>
        <time>2018-12-28T04:36:29Z</time>
      </trkpt>
      <trkpt lat="36.099170" lon="-111.335870">
        <ele>1380.998</ele>
        <time>2018-12-28T04:36:49Z</time>
      </trkpt>
      <trkpt lat="36.099040" lon="-111.337730">
        <ele>1378.617</ele>
        <time>2018-12-28T04:37:09Z</time>
      </trkpt>
      <trkpt lat="36.099000" lon="-111.338300">
        <ele>1379.008</ele>
        <time>2018-12-28T04:37:29Z</time>
      </trkpt>
      <trkpt lat="36.098970" lon="-111.338710">
        <ele>1379.034</ele>
        <time>2018-12-28T04:37:49Z</time>
      </trkpt>
      <trkpt lat="36.098920" lon="-111.339300">
        <ele>1378.482</ele>
        <time>2018-12-28T04:38:09Z</time>
      </trkpt>
      <trkpt lat="36.098870" lon="-111.339770">
        <ele>1378.357</ele>
        <time>2018-12-28T04:38:29Z</time>
      </trkpt>
      <trkpt lat="36.098850" lon="-111.339860">
        <ele>1378.598</ele>
        <time>2018-12-28T04:38:49Z</time>
      </trkpt>
      <trkpt lat="36.098600" lon="-111.341630">
        <ele>1380.283</ele>
        <time>2018-12-28T04:39:09Z</time>
      </trkpt>
      <trkpt lat="36.098430" lon="-111.342740">
        <ele>1384.491</ele>
        <time>2018-12-28T04:39:29Z</time>
      </trkpt>
      <trkpt lat="36.098140" lon="-111.344740">
        <ele>1390.783</ele>
        <time>2018-12-28T04:39:49Z</time>
      </trkpt>
      <trkpt lat="36.098000" lon="-111.345580">
        <ele>1391.452</ele>
        <time>2018-12-28T04:40:09Z</time>
      </trkpt>
      <trkpt lat="36.097930" lon="-111.346070">
        <ele>1393.319</ele>
        <time>2018-12-28T04:40:29Z</time>
      </trkpt>
      <trkpt lat="36.097770" lon="-111.347140">
        <ele>1396.909</ele>
        <time>2018-12-28T04:40:49Z</time>
      </trkpt>
      <trkpt lat="36.097560" lon="-111.348460">
        <ele>1398.319</ele>
        <time>2018-12-28T04:41:09Z</time>
      </trkpt>
      <trkpt lat="36.096880" lon="-111.353060">
        <ele>1402.908</ele>
        <time>2018-12-28T04:41:29Z</time>
      </trkpt>
      <trkpt lat="36.096790" lon="-111.353630">
        <ele>1403.074</ele>
        <time>2018-12-28T04:41:49Z</time>
      </trkpt>
      <trkpt lat="36.096680" lon="-111.354340">
        <ele>1403.182</ele>
        <time>2018-12-28T04:42:09Z</time>
      </trkpt>
      <trkpt lat="36.096560" lon="-111.355150">
        <ele>1403.317</ele>
        <time>2018-12-28T04:42:29Z</time>
      </trkpt>
      <trkpt lat="36.096510" lon="-111.355440">
        <ele>1403.318</ele>
        <time>2018-12-28T04:42:49Z</time>
      </trkpt>
      <trkpt lat="36.096480" lon="-111.355640">
        <ele>1403.353</ele>
        <time>2018-12-28T04:43:09Z</time>
      </trkpt>
      <trkpt lat="36.096440" lon="-111.355910">
        <ele>1403.391</ele>
        <time>2018-12-28T04:43:29Z</time>
      </trkpt>
      <trkpt lat="36.096280" lon="-111.356970">
        <ele>1405.043</ele>
        <time>2018-12-28T04:43:49Z</time>
      </trkpt>
      <trkpt lat="36.096140" lon="-111.357890">
        <ele>1406.492</ele>
        <time>2018-12-28T04:44:09Z</time>
      </trkpt>
      <trkpt lat="36.096020" lon="-111.358660">
        <ele>1407.661</ele>
        <time>2018-12-28T04:44:29Z</time>
      </trkpt>
      <trkpt lat="36.095990" lon="-111.358840">
        <ele>1408.021</ele>
        <time>2018-12-28T04:44:49Z</time>
      </trkpt>
      <trkpt lat="36.095960" lon="-111.359010">
        <ele>1408.313</ele>
        <time>2018-12-28T04:45:09Z</time>
      </trkpt>
      <trkpt lat="36.095930" lon="-111.359170">
        <ele>1408.608</ele>
        <time>2018-12-28T04:45:29Z</time>
      </trkpt>
      <trkpt lat="36.095900" lon="-111.359300">
        <ele>1408.869</ele>
        <time>2018-12-28T04:45:49Z</time>
      </trkpt>
      <trkpt lat="36.095870" lon="-111.359430">
        <ele>1409.057</ele>
        <time>2018-12-28T04:46:09Z</time>
      </trkpt>
      <trkpt lat="36.095820" lon="-111.359610">
        <ele>1409.262</ele>
        <time>2018-12-28T04:46:29Z</time>
      </trkpt>
      <trkpt lat="36.095760" lon="-111.359840">
        <ele>1409.363</ele>
        <time>2018-12-28T04:46:49Z</time>
      </trkpt>
      <trkpt lat="36.095710" lon="-111.360020">
        <ele>1409.648</ele>
        <time>2018-12-28T04:47:09Z</time>
      </trkpt>
      <trkpt lat="36.095670" lon="-111.360160">
        <ele>1410.016</ele>
        <time>2018-12-28T04:47:29Z</time>
      </trkpt>
      <trkpt lat="36.095610" lon="-111.360330">
        <ele>1410.618</ele>
        <time>2018-12-28T04:47:49Z</time>
      </trkpt>
      <trkpt lat="36.095560" lon="-111.360480">
        <ele>1411.187</ele>
        <time>2018-12-28T04:48:09Z</time>
      </trkpt>
      <trkpt lat="36.095500" lon="-111.360640">
        <ele>1411.733</ele>
        <time>2018-12-28T04:48:29Z</time>
      </trkpt>
      <trkpt lat="36.095430" lon="-111.360820">
        <ele>1412.523</ele>
        <time>2018-12-28T04:48:49Z</time>
      </trkpt>
      <trkpt lat="36.095380" lon="-111.360950">
        <ele>1413.115</ele>
        <time>2018-12-28T04:49:09Z</time>
      </trkpt>
      <trkpt lat="36.095330" lon="-111.361080">
        <ele>1413.608</ele>
        <time>2018-12-28T04:49:29Z</time>
      </trkpt>
      <trkpt lat="36.095280" lon="-111.361190">
        <ele>1414.146</ele>
        <time>2018-12-28T04:49:49Z</time>
      </trkpt>
      <trkpt lat="36.095230" lon="-111.361320">
        <ele>1414.694</ele>
        <time>2018-12-28T04:50:09Z</time>
      </trkpt>
      <trkpt lat="36.095150" lon="-111.361480">
        <ele>1415.489</ele>
        <time>2018-12-28T04:50:29Z</time>
      </trkpt>
      <trkpt lat="36.095070" lon="-111.361680">
        <ele>1415.910</ele>
        <time>2018-12-28T04:50:49Z</time>
      </trkpt>
      <trkpt lat="36.095030" lon="-111.361760">
        <ele>1416.125</ele>
        <time>2018-12-28T04:51:09Z</time>
      </trkpt>
      <trkpt lat="36.094980" lon="-111.361860">
        <ele>1416.563</ele>
        <time>2018-12-28T04:51:29Z</time>
      </trkpt>
      <trkpt lat="36.094940" lon="-111.361920">
        <ele>1416.965</ele>
        <time>2018-12-28T04:51:49Z</time>
      </trkpt>
      <trkpt lat="36.094890" lon="-111.362010">
        <ele>1417.434</ele>
        <time>2018-12-28T04:52:09Z</time>
      </trkpt>
      <trkpt lat="36.094860" lon="-111.362070">
        <ele>1417.792</ele>
        <time>2018-12-28T04:52:29Z</time>
      </trkpt>
      <trkpt lat="36.094810" lon="-111.362150">
        <ele>1418.273</ele>
        <time>2018-12-28T04:52:49Z</time>
      </trkpt>
      <trkpt lat="36.094740" lon="-111.362300">
        <ele>1419.120</ele>
        <time>2018-12-28T04:53:09Z</time>
      </trkpt>
      <trkpt lat="36.094690" lon="-111.362380">
        <ele>1419.608</ele>
        <time>2018-12-28T04:53:29Z</time>
      </trkpt>
      <trkpt lat="36.094620" lon="-111.362490">
        <ele>1420.152</ele>
        <time>2018-12-28T04:53:49Z</time>
      </trkpt>
      <trkpt lat="36.094460" lon="-111.362750">
        <ele>1421.220</ele>
        <time>2018-12-28T04:54:09Z</time>
      </trkpt>
      <trkpt lat="36.094250" lon="-111.363070">
        <ele>1422.545</ele>
        <time>2018-12-28T04:54:29Z</time>
      </trkpt>
      <trkpt lat="36.094060" lon="-111.363320">
        <ele>1423.886</ele>
        <time>2018-12-28T04:54:49Z</time>
      </trkpt>
      <trkpt lat="36.093990" lon="-111.363410">
        <ele>1424.451</ele>
        <time>2018-12-28T04:55:09Z</time>
      </trkpt>
      <trkpt lat="36.093830" lon="-111.363610">
        <ele>1425.859</ele>
        <time>2018-12-28T04:55:29Z</time>
      </trkpt>
      <trkpt lat="36.093700" lon="-111.363760">
        <ele>1426.891</ele>
        <time>2018-12-28T04:55:49Z</time>
      </trkpt>
      <trkpt lat="36.093590" lon="-111.363890">
        <ele>1427.610</ele>
        <time>2018-12-28T04:56:09Z</time>
      </trkpt>
      <trkpt lat="36.093300" lon="-111.364190">
        <ele>1428.965</ele>
        <time>2018-12-28T04:56:29Z</time>
      </trkpt>
      <trkpt lat="36.093220" lon="-111.364280">
        <ele>1429.368</ele>
        <time>2018-12-28T04:56:49Z</time>
      </trkpt>
      <trkpt lat="36.093110" lon="-111.364380">
        <ele>1430.014</ele>
        <time>2018-12-28T04:57:09Z</time>
      </trkpt>
      <trkpt lat="36.093020" lon="-111.364460">
        <ele>1430.608</ele>
        <time>2018-12-28T04:57:29Z</time>
      </trkpt>
      <trkpt lat="36.092890" lon="-111.364580">
        <ele>1431.499</ele>
        <time>2018-12-28T04:57:49Z</time>
      </trkpt>
      <trkpt lat="36.092620" lon="-111.364800">
        <ele>1432.487</ele>
        <time>2018-12-28T04:58:09Z</time>
      </trkpt>
      <trkpt lat="36.092290" lon="-111.365070">
        <ele>1433.292</ele>
        <time>2018-12-28T04:58:29Z</time>
      </trkpt>
      <trkpt lat="36.091840" lon="-111.365430">
        <ele>1432.213</ele>
        <time>2018-12-28T04:58:49Z</time>
      </trkpt>
      <trkpt lat="36.091410" lon="-111.365790">
        <ele>1429.248</ele>
        <time>2018-12-28T04:59:09Z</time>
      </trkpt>
      <trkpt lat="36.091080" lon="-111.366070">
        <ele>1426.216</ele>
        <time>2018-12-28T04:59:29Z</time>
      </trkpt>
      <trkpt lat="36.090810" lon="-111.366300">
        <ele>1424.758</ele>
        <time>2018-12-28T04:59:49Z</time>
      </trkpt>
      <trkpt lat="36.090530" lon="-111.366530">
        <ele>1423.927</ele>
        <time>2018-12-28T05:00:09Z</time>
      </trkpt>
      <trkpt lat="36.090270" lon="-111.366730">
        <ele>1423.127</ele>
        <time>2018-12-28T05:00:29Z</time>
      </trkpt>
      <trkpt lat="36.090130" lon="-111.366840">
        <ele>1422.068</ele>
        <time>2018-12-28T05:00:49Z</time>
      </trkpt>
      <trkpt lat="36.090020" lon="-111.366920">
        <ele>1421.214</ele>
        <time>2018-12-28T05:01:09Z</time>
      </trkpt>
      <trkpt lat="36.089850" lon="-111.367050">
        <ele>1419.208</ele>
        <time>2018-12-28T05:01:29Z</time>
      </trkpt>
      <trkpt lat="36.089610" lon="-111.367200">
        <ele>1415.895</ele>
        <time>2018-12-28T05:01:49Z</time>
      </trkpt>
      <trkpt lat="36.089600" lon="-111.367210">
        <ele>1415.773</ele>
        <time>2018-12-28T05:02:09Z</time>
      </trkpt>
      <trkpt lat="36.089400" lon="-111.367320">
        <ele>1413.478</ele>
        <time>2018-12-28T05:02:29Z</time>
      </trkpt>
      <trkpt lat="36.089330" lon="-111.367360">
        <ele>1413.289</ele>
        <time>2018-12-28T05:02:49Z</time>
      </trkpt>
      <trkpt lat="36.089260" lon="-111.367390">
        <ele>1412.964</ele>
        <time>2018-12-28T05:03:09Z</time>
      </trkpt>
      <trkpt lat="36.089180" lon="-111.367430">
        <ele>1412.682</ele>
        <time>2018-12-28T05:03:29Z</time>
      </trkpt>
      <trkpt lat="36.089070" lon="-111.367470">
        <ele>1412.084</ele>
        <time>2018-12-28T05:03:49Z</time>
      </trkpt>
      <trkpt lat="36.088980" lon="-111.367500">
        <ele>1411.293</ele>
        <time>2018-12-28T05:04:09Z</time>
      </trkpt>
      <trkpt lat="36.088880" lon="-111.367540">
        <ele>1410.075</ele>
        <time>2018-12-28T05:04:29Z</time>
      </trkpt>
      <trkpt lat="36.088790" lon="-111.367560">
        <ele>1408.728</ele>
        <time>2018-12-28T05:04:49Z</time>
      </trkpt>
      <trkpt lat="36.088650" lon="-111.367600">
        <ele>1407.520</ele>
        <time>2018-12-28T05:05:09Z</time>
      </trkpt>
      <trkpt lat="36.088530" lon="-111.367620">
        <ele>1406.908</ele>
        <time>2018-12-28T05:05:29Z</time>
      </trkpt>
      <trkpt lat="36.088460" lon="-111.367630">
        <ele>1406.680</ele>
        <time>2018-12-28T05:05:49Z</time>
      </trkpt>
      <trkpt lat="36.088330" lon="-111.367650">
        <ele>1407.078</ele>
        <time>2018-12-28T05:06:09Z</time>
      </trkpt>
      <trkpt lat="36.088220" lon="-111.367650">
        <ele>1406.683</ele>
        <time>2018-12-28T05:06:29Z</time>
      </trkpt>
      <trkpt lat="36.088140" lon="-111.367660">
        <ele>1406.024</ele>
        <time>2018-12-28T05:06:49Z</time>
      </trkpt>
      <trkpt lat="36.088040" lon="-111.367670">
        <ele>1404.639</ele>
        <time>2018-12-28T05:07:09Z</time>
      </trkpt>
      <trkpt lat="36.087970" lon="-111.367680">
        <ele>1403.917</ele>
        <time>2018-12-28T05:07:29Z</time>
      </trkpt>
      <trkpt lat="36.087830" lon="-111.367680">
        <ele>1402.879</ele>
        <time>2018-12-28T05:07:49Z</time>
      </trkpt>
      <trkpt lat="36.087560" lon="-111.367670">
        <ele>1402.028</ele>
        <time>2018-12-28T05:08:09Z</time>
      </trkpt>
      <trkpt lat="36.087200" lon="-111.367650">
        <ele>1399.216</ele>
        <time>2018-12-28T05:08:29Z</time>
      </trkpt>
      <trkpt lat="36.086670" lon="-111.367610">
        <ele>1395.776</ele>
        <time>2018-12-28T05:08:49Z</time>
      </trkpt>
      <trkpt lat="36.086450" lon="-111.367600">
        <ele>1393.113</ele>
        <time>2018-12-28T05:09:09Z</time>
      </trkpt>
      <trkpt lat="36.085710" lon="-111.367560">
        <ele>1384.808</ele>
        <time>2018-12-28T05:09:29Z</time>
      </trkpt>
      <trkpt lat="36.085580" lon="-111.367550">
        <ele>1384.254</ele>
        <time>2018-12-28T05:09:49Z</time>
      </trkpt>
      <trkpt lat="36.085390" lon="-111.367550">
        <ele>1383.142</ele>
        <time>2018-12-28T05:10:09Z</time>
      </trkpt>
      <trkpt lat="36.085250" lon="-111.367550">
        <ele>1381.137</ele>
        <time>2018-12-28T05:10:29Z</time>
      </trkpt>
      <trkpt lat="36.085150" lon="-111.367550">
        <ele>1379.768</ele>
        <time>2018-12-28T05:10:49Z</time>
      </trkpt>
      <trkpt lat="36.085060" lon="-111.367560">
        <ele>1379.313</ele>
        <time>2018-12-28T05:11:09Z</time>
      </trkpt>
      <trkpt lat="36.084920" lon="-111.367570">
        <ele>1378.911</ele>
        <time>2018-12-28T05:11:29Z</time>
      </trkpt>
      <trkpt lat="36.084780" lon="-111.367580">
        <ele>1378.793</ele>
        <time>2018-12-28T05:11:49Z</time>
      </trkpt>
      <trkpt lat="36.084560" lon="-111.367610">
        <ele>1378.622</ele>
        <time>2018-12-28T05:12:09Z</time>
      </trkpt>
      <trkpt lat="36.084430" lon="-111.367640">
        <ele>1378.389</ele>
        <time>2018-12-28T05:12:29Z</time>
      </trkpt>
      <trkpt lat="36.084170" lon="-111.367700">
        <ele>1377.506</ele>
        <time>2018-12-28T05:12:49Z</time>
      </trkpt>
      <trkpt lat="36.084080" lon="-111.367740">
        <ele>1377.226</ele>
        <time>2018-12-28T05:13:09Z</time>
      </trkpt>
      <trkpt lat="36.083960" lon="-111.367780">
        <ele>1376.808</ele>
        <time>2018-12-28T05:13:29Z</time>
      </trkpt>
      <trkpt lat="36.083840" lon="-111.367830">
        <ele>1376.431</ele>
        <time>2018-12-28T05:13:49Z</time>
      </trkpt>
      <trkpt lat="36.083650" lon="-111.367920">
        <ele>1375.749</ele>
        <time>2018-12-28T05:14:09Z</time>
      </trkpt>
      <trkpt lat="36.083470" lon="-111.368020">
        <ele>1374.974</ele>
        <time>2018-12-28T05:14:29Z</time>
      </trkpt>
      <trkpt lat="36.083270" lon="-111.368150">
        <ele>1374.225</ele>
        <time>2018-12-28T05:14:49Z</time>
      </trkpt>
      <trkpt lat="36.083170" lon="-111.368230">
        <ele>1373.950</ele>
        <time>2018-12-28T05:15:09Z</time>
      </trkpt>
      <trkpt lat="36.083080" lon="-111.368300">
        <ele>1373.738</ele>
        <time>2018-12-28T05:15:29Z</time>
      </trkpt>
      <trkpt lat="36.082990" lon="-111.368380">
        <ele>1373.580</ele>
        <time>2018-12-28T05:15:49Z</time>
      </trkpt>
      <trkpt lat="36.082820" lon="-111.368530">
        <ele>1373.099</ele>
        <time>2018-12-28T05:16:09Z</time>
      </trkpt>
      <trkpt lat="36.082720" lon="-111.368620">
        <ele>1372.785</ele>
        <time>2018-12-28T05:16:29Z</time>
      </trkpt>
      <trkpt lat="36.082650" lon="-111.368690">
        <ele>1372.589</ele>
        <time>2018-12-28T05:16:49Z</time>
      </trkpt>
      <trkpt lat="36.082570" lon="-111.368780">
        <ele>1372.217</ele>
        <time>2018-12-28T05:17:09Z</time>
      </trkpt>
      <trkpt lat="36.082490" lon="-111.368870">
        <ele>1371.808</ele>
        <time>2018-12-28T05:17:29Z</time>
      </trkpt>
      <trkpt lat="36.082410" lon="-111.368970">
        <ele>1371.471</ele>
        <time>2018-12-28T05:17:49Z</time>
      </trkpt>
      <trkpt lat="36.082260" lon="-111.369170">
        <ele>1370.719</ele>
        <time>2018-12-28T05:18:09Z</time>
      </trkpt>
      <trkpt lat="36.082190" lon="-111.369270">
        <ele>1370.434</ele>
        <time>2018-12-28T05:18:29Z</time>
      </trkpt>
      <trkpt lat="36.082110" lon="-111.369380">
        <ele>1370.165</ele>
        <time>2018-12-28T05:18:49Z</time>
      </trkpt>
      <trkpt lat="36.082010" lon="-111.369560">
        <ele>1369.520</ele>
        <time>2018-12-28T05:19:09Z</time>
      </trkpt>
      <trkpt lat="36.081950" lon="-111.369650">
        <ele>1369.238</ele>
        <time>2018-12-28T05:19:29Z</time>
      </trkpt>
      <trkpt lat="36.081910" lon="-111.369720">
        <ele>1369.070</ele>
        <time>2018-12-28T05:19:49Z</time>
      </trkpt>
      <trkpt lat="36.081860" lon="-111.369820">
        <ele>1368.869</ele>
        <time>2018-12-28T05:20:09Z</time>
      </trkpt>
      <trkpt lat="36.081800" lon="-111.369940">
        <ele>1368.564</ele>
        <time>2018-12-28T05:20:29Z</time>
      </trkpt>
      <trkpt lat="36.081710" lon="-111.370150">
        <ele>1367.906</ele>
        <time>2018-12-28T05:20:49Z</time>
      </trkpt>
      <trkpt lat="36.081650" lon="-111.370290">
        <ele>1367.416</ele>
        <time>2018-12-28T05:21:09Z</time>
      </trkpt>
      <trkpt lat="36.081570" lon="-111.370520">
        <ele>1367.008</ele>
        <time>2018-12-28T05:21:29Z</time>
      </trkpt>
      <trkpt lat="36.081440" lon="-111.370890">
        <ele>1366.559</ele>
        <time>2018-12-28T05:21:49Z</time>
      </trkpt>
      <trkpt lat="36.081290" lon="-111.371410">
        <ele>1365.717</ele>
        <time>2018-12-28T05:22:09Z</time>
      </trkpt>
      <trkpt lat="36.081150" lon="-111.371870">
        <ele>1365.322</ele>
        <time>2018-12-28T05:22:29Z</time>
      </trkpt>
      <trkpt lat="36.081010" lon="-111.372310">
        <ele>1365.443</ele>
        <time>2018-12-28T05:22:49Z</time>
      </trkpt>
      <trkpt lat="36.080700" lon="-111.373360">
        <ele>1364.678</ele>
        <time>2018-12-28T05:23:09Z</time>
      </trkpt>
      <trkpt lat="36.080270" lon="-111.374850">
        <ele>1360.676</ele>
        <time>2018-12-28T05:23:29Z</time>
      </trkpt>
      <trkpt lat="36.080110" lon="-111.375350">
        <ele>1359.888</ele>
        <time>2018-12-28T05:23:49Z</time>
      </trkpt>
      <trkpt lat="36.080110" lon="-111.375450">
        <ele>1359.527</ele>
        <time>2018-12-28T05:24:09Z</time>
      </trkpt>
      <trkpt lat="36.080030" lon="-111.375790">
        <ele>1358.246</ele>
        <time>2018-12-28T05:24:29Z</time>
      </trkpt>
      <trkpt lat="36.079870" lon="-111.376330">
        <ele>1357.088</ele>
        <time>2018-12-28T05:24:49Z</time>
      </trkpt>
      <trkpt lat="36.079770" lon="-111.376640">
        <ele>1356.316</ele>
        <time>2018-12-28T05:25:09Z</time>
      </trkpt>
      <trkpt lat="36.079340" lon="-111.378070">
        <ele>1354.508</ele>
        <time>2018-12-28T05:25:29Z</time>
      </trkpt>
      <trkpt lat="36.079180" lon="-111.378580">
        <ele>1354.477</ele>
        <time>2018-12-28T05:25:49Z</time>
      </trkpt>
      <trkpt lat="36.079150" lon="-111.378680">
        <ele>1354.475</ele>
        <time>2018-12-28T05:26:09Z</time>
      </trkpt>
      <trkpt lat="36.079090" lon="-111.378780">
        <ele>1354.450</ele>
        <time>2018-12-28T05:26:29Z</time>
      </trkpt>
      <trkpt lat="36.078650" lon="-111.380250">
        <ele>1353.271</ele>
        <time>2018-12-28T05:26:49Z</time>
      </trkpt>
      <trkpt lat="36.078550" lon="-111.380590">
        <ele>1353.296</ele>
        <time>2018-12-28T05:27:09Z</time>
      </trkpt>
      <trkpt lat="36.078190" lon="-111.381860">
        <ele>1354.194</ele>
        <time>2018-12-28T05:27:29Z</time>
      </trkpt>
      <trkpt lat="36.077840" lon="-111.383020">
        <ele>1354.116</ele>
        <time>2018-12-28T05:27:49Z</time>
      </trkpt>
      <trkpt lat="36.077710" lon="-111.383450">
        <ele>1354.245</ele>
        <time>2018-12-28T05:28:09Z</time>
      </trkpt>
      <trkpt lat="36.077590" lon="-111.383850">
        <ele>1354.043</ele>
        <time>2018-12-28T05:28:29Z</time>
      </trkpt>
      <trkpt lat="36.077330" lon="-111.384740">
        <ele>1353.564</ele>
        <time>2018-12-28T05:28:49Z</time>
      </trkpt>
      <trkpt lat="36.077020" lon="-111.385790">
        <ele>1354.210</ele>
        <time>2018-12-28T05:29:09Z</time>
      </trkpt>
      <trkpt lat="36.076900" lon="-111.386180">
        <ele>1354.208</ele>
        <time>2018-12-28T05:29:29Z</time>
      </trkpt>
      <trkpt lat="36.076750" lon="-111.386700">
        <ele>1354.247</ele>
        <time>2018-12-28T05:29:49Z</time>
      </trkpt>
      <trkpt lat="36.076540" lon="-111.387410">
        <ele>1355.075</ele>
        <time>2018-12-28T05:30:09Z</time>
      </trkpt>
      <trkpt lat="36.076330" lon="-111.388130">
        <ele>1358.910</ele>
        <time>2018-12-28T05:30:29Z</time>
      </trkpt>
      <trkpt lat="36.076220" lon="-111.388500">
        <ele>1360.531</ele>
        <time>2018-12-28T05:30:49Z</time>
      </trkpt>
      <trkpt lat="36.076210" lon="-111.388520">
        <ele>1360.586</ele>
        <time>2018-12-28T05:31:09Z</time>
      </trkpt>
      <trkpt lat="36.076190" lon="-111.388590">
        <ele>1360.524</ele>
        <time>2018-12-28T05:31:29Z</time>
      </trkpt>
      <trkpt lat="36.076170" lon="-111.388690">
        <ele>1360.786</ele>
        <time>2018-12-28T05:31:49Z</time>
      </trkpt>
      <trkpt lat="36.076140" lon="-111.388840">
        <ele>1360.835</ele>
        <time>2018-12-28T05:32:09Z</time>
      </trkpt>
      <trkpt lat="36.076100" lon="-111.389000">
        <ele>1360.853</ele>
        <time>2018-12-28T05:32:29Z</time>
      </trkpt>
      <trkpt lat="36.076090" lon="-111.389090">
        <ele>1360.904</ele>
        <time>2018-12-28T05:32:49Z</time>
      </trkpt>
      <trkpt lat="36.076070" lon="-111.389190">
        <ele>1360.914</ele>
        <time>2018-12-28T05:33:09Z</time>
      </trkpt>
      <trkpt lat="36.076050" lon="-111.389370">
        <ele>1360.908</ele>
        <time>2018-12-28T05:33:29Z</time>
      </trkpt>
      <trkpt lat="36.076030" lon="-111.389490">
        <ele>1360.958</ele>
        <time>2018-12-28T05:33:49Z</time>
      </trkpt>
      <trkpt lat="36.076020" lon="-111.389580">
        <ele>1360.926</ele>
        <time>2018-12-28T05:34:09Z</time>
      </trkpt>
      <trkpt lat="36.076010" lon="-111.389660">
        <ele>1361.161</ele>
        <time>2018-12-28T05:34:29Z</time>
      </trkpt>
      <trkpt lat="36.076000" lon="-111.389740">
        <ele>1361.212</ele>
        <time>2018-12-28T05:34:49Z</time>
      </trkpt>
      <trkpt lat="36.075990" lon="-111.389840">
        <ele>1361.327</ele>
        <time>2018-12-28T05:35:09Z</time>
      </trkpt>
      <trkpt lat="36.075990" lon="-111.389940">
        <ele>1361.315</ele>
        <time>2018-12-28T05:35:29Z</time>
      </trkpt>
      <trkpt lat="36.075980" lon="-111.390020">
        <ele>1361.297</ele>
        <time>2018-12-28T05:35:49Z</time>
      </trkpt>
      <trkpt lat="36.075980" lon="-111.390090">
        <ele>1361.116</ele>
        <time>2018-12-28T05:36:09Z</time>
      </trkpt>
      <trkpt lat="36.075980" lon="-111.390270">
        <ele>1360.716</ele>
        <time>2018-12-28T05:36:29Z</time>
      </trkpt>
      <trkpt lat="36.075970" lon="-111.391560">
        <ele>1360.476</ele>
        <time>2018-12-28T05:36:49Z</time>
      </trkpt>
      <trkpt lat="36.075967" lon="-111.391562">
        <ele>1360.413</ele>
        <time>2018-12-28T05:37:09Z</time>
      </trkpt>
      <trkpt lat="36.075960" lon="-111.391790">
        <ele>1360.908</ele>
        <time>2018-12-28T05:37:29Z</time>
      </trkpt>
      <trkpt lat="36.075960" lon="-111.391880">
        <ele>1360.724</ele>
        <time>2018-12-28T05:37:49Z</time>
      </trkpt>
      <trkpt lat="36.075080" lon="-111.392030">
        <ele>1360.122</ele>
        <time>2018-12-28T05:38:09Z</time>
      </trkpt>
      <trkpt lat="36.074870" lon="-111.392060">
        <ele>1359.687</ele>
        <time>2018-12-28T05:38:29Z</time>
      </trkpt>
      <trkpt lat="36.073890" lon="-111.392200">
        <ele>1355.288</ele>
        <time>2018-12-28T05:38:49Z</time>
      </trkpt>
      <trkpt lat="36.073100" lon="-111.392310">
        <ele>1354.613</ele>
        <time>2018-12-28T05:39:09Z</time>
      </trkpt>
      <trkpt lat="36.072920" lon="-111.392310">
        <ele>1354.681</ele>
        <time>2018-12-28T05:39:29Z</time>
      </trkpt>
      <trkpt lat="36.072510" lon="-111.392370">
        <ele>1354.553</ele>
        <time>2018-12-28T05:39:49Z</time>
      </trkpt>
      <trkpt lat="36.071350" lon="-111.392560">
        <ele>1356.532</ele>
        <time>2018-12-28T05:40:09Z</time>
      </trkpt>
      <trkpt lat="36.070430" lon="-111.392700">
        <ele>1355.312</ele>
        <time>2018-12-28T05:40:29Z</time>
      </trkpt>
      <trkpt lat="36.069120" lon="-111.392900">
        <ele>1354.232</ele>
        <time>2018-12-28T05:40:49Z</time>
      </trkpt>
      <trkpt lat="36.068100" lon="-111.393060">
        <ele>1354.305</ele>
        <time>2018-12-28T05:41:09Z</time>
      </trkpt>
      <trkpt lat="36.066400" lon="-111.393340">
        <ele>1357.708</ele>
        <time>2018-12-28T05:41:29Z</time>
      </trkpt>
      <trkpt lat="36.066270" lon="-111.393360">
        <ele>1358.194</ele>
        <time>2018-12-28T05:41:49Z</time>
      </trkpt>
      <trkpt lat="36.064750" lon="-111.393590">
        <ele>1353.342</ele>
        <time>2018-12-28T05:42:09Z</time>
      </trkpt>
      <trkpt lat="36.063260" lon="-111.393810">
        <ele>1349.397</ele>
        <time>2018-12-28T05:42:29Z</time>
      </trkpt>
      <trkpt lat="36.062400" lon="-111.393940">
        <ele>1348.658</ele>
        <time>2018-12-28T05:42:49Z</time>
      </trkpt>
      <trkpt lat="36.061760" lon="-111.394040">
        <ele>1348.563</ele>
        <time>2018-12-28T05:43:09Z</time>
      </trkpt>
      <trkpt lat="36.061190" lon="-111.394120">
        <ele>1348.811</ele>
        <time>2018-12-28T05:43:29Z</time>
      </trkpt>
      <trkpt lat="36.060110" lon="-111.394300">
        <ele>1354.043</ele>
        <time>2018-12-28T05:43:49Z</time>
      </trkpt>
      <trkpt lat="36.058880" lon="-111.394490">
        <ele>1352.982</ele>
        <time>2018-12-28T05:44:09Z</time>
      </trkpt>
      <trkpt lat="36.057010" lon="-111.394760">
        <ele>1348.333</ele>
        <time>2018-12-28T05:44:29Z</time>
      </trkpt>
      <trkpt lat="36.056540" lon="-111.394830">
        <ele>1348.123</ele>
        <time>2018-12-28T05:44:49Z</time>
      </trkpt>
      <trkpt lat="36.055750" lon="-111.394950">
        <ele>1348.115</ele>
        <time>2018-12-28T05:45:09Z</time>
      </trkpt>
      <trkpt lat="36.055170" lon="-111.395040">
        <ele>1348.108</ele>
        <time>2018-12-28T05:45:29Z</time>
      </trkpt>
      <trkpt lat="36.052590" lon="-111.395410">
        <ele>1346.276</ele>
        <time>2018-12-28T05:45:49Z</time>
      </trkpt>
      <trkpt lat="36.052320" lon="-111.395460">
        <ele>1345.794</ele>
        <time>2018-12-28T05:46:09Z</time>
      </trkpt>
      <trkpt lat="36.051860" lon="-111.395530">
        <ele>1344.869</ele>
        <time>2018-12-28T05:46:29Z</time>
      </trkpt>
      <trkpt lat="36.051190" lon="-111.395630">
        <ele>1343.890</ele>
        <time>2018-12-28T05:46:49Z</time>
      </trkpt>
      <trkpt lat="36.050850" lon="-111.395680">
        <ele>1343.795</ele>
        <time>2018-12-28T05:47:09Z</time>
      </trkpt>
      <trkpt lat="36.050170" lon="-111.395790">
        <ele>1343.423</ele>
        <time>2018-12-28T05:47:29Z</time>
      </trkpt>
      <trkpt lat="36.049650" lon="-111.395870">
        <ele>1343.435</ele>
        <time>2018-12-28T05:47:49Z</time>
      </trkpt>
      <trkpt lat="36.049390" lon="-111.395910">
        <ele>1343.584</ele>
        <time>2018-12-28T05:48:09Z</time>
      </trkpt>
      <trkpt lat="36.048710" lon="-111.396010">
        <ele>1343.437</ele>
        <time>2018-12-28T05:48:29Z</time>
      </trkpt>
      <trkpt lat="36.048300" lon="-111.396080">
        <ele>1343.349</ele>
        <time>2018-12-28T05:48:49Z</time>
      </trkpt>
      <trkpt lat="36.046500" lon="-111.396350">
        <ele>1341.813</ele>
        <time>2018-12-28T05:49:09Z</time>
      </trkpt>
      <trkpt lat="36.046080" lon="-111.396410">
        <ele>1341.808</ele>
        <time>2018-12-28T05:49:29Z</time>
      </trkpt>
      <trkpt lat="36.045680" lon="-111.396470">
        <ele>1341.756</ele>
        <time>2018-12-28T05:49:49Z</time>
      </trkpt>
      <trkpt lat="36.044790" lon="-111.396610">
        <ele>1341.324</ele>
        <time>2018-12-28T05:50:09Z</time>
      </trkpt>
      <trkpt lat="36.044380" lon="-111.396670">
        <ele>1340.669</ele>
        <time>2018-12-28T05:50:29Z</time>
      </trkpt>
      <trkpt lat="36.043870" lon="-111.396750">
        <ele>1339.940</ele>
        <time>2018-12-28T05:50:49Z</time>
      </trkpt>
      <trkpt lat="36.041560" lon="-111.397100">
        <ele>1339.255</ele>
        <time>2018-12-28T05:51:09Z</time>
      </trkpt>
      <trkpt lat="36.040930" lon="-111.397190">
        <ele>1338.293</ele>
        <time>2018-12-28T05:51:29Z</time>
      </trkpt>
      <trkpt lat="36.039580" lon="-111.397400">
        <ele>1336.235</ele>
        <time>2018-12-28T05:51:49Z</time>
      </trkpt>
      <trkpt lat="36.038190" lon="-111.397620">
        <ele>1336.444</ele>
        <time>2018-12-28T05:52:09Z</time>
      </trkpt>
      <trkpt lat="36.036660" lon="-111.397850">
        <ele>1334.917</ele>
        <time>2018-12-28T05:52:29Z</time>
      </trkpt>
      <trkpt lat="36.036410" lon="-111.397890">
        <ele>1334.587</ele>
        <time>2018-12-28T05:52:49Z</time>
      </trkpt>
      <trkpt lat="36.036150" lon="-111.397920">
        <ele>1334.115</ele>
        <time>2018-12-28T05:53:09Z</time>
      </trkpt>
      <trkpt lat="36.035960" lon="-111.397950">
        <ele>1333.708</ele>
        <time>2018-12-28T05:53:29Z</time>
      </trkpt>
      <trkpt lat="36.035740" lon="-111.397980">
        <ele>1333.154</ele>
        <time>2018-12-28T05:53:49Z</time>
      </trkpt>
      <trkpt lat="36.035410" lon="-111.398010">
        <ele>1332.532</ele>
        <time>2018-12-28T05:54:09Z</time>
      </trkpt>
      <trkpt lat="36.035250" lon="-111.398030">
        <ele>1332.257</ele>
        <time>2018-12-28T05:54:29Z</time>
      </trkpt>
      <trkpt lat="36.034980" lon="-111.398050">
        <ele>1331.968</ele>
        <time>2018-12-28T05:54:49Z</time>
      </trkpt>
      <trkpt lat="36.034870" lon="-111.398060">
        <ele>1331.843</ele>
        <time>2018-12-28T05:55:09Z</time>
      </trkpt>
      <trkpt lat="36.034710" lon="-111.398070">
        <ele>1331.621</ele>
        <time>2018-12-28T05:55:29Z</time>
      </trkpt>
      <trkpt lat="36.034380" lon="-111.398100">
        <ele>1331.163</ele>
        <time>2018-12-28T05:55:49Z</time>
      </trkpt>
      <trkpt lat="36.033890" lon="-111.398140">
        <ele>1330.562</ele>
        <time>2018-12-28T05:56:09Z</time>
      </trkpt>
      <trkpt lat="36.033580" lon="-111.398150">
        <ele>1330.161</ele>
        <time>2018-12-28T05:56:29Z</time>
      </trkpt>
      <trkpt lat="36.033200" lon="-111.398170">
        <ele>1329.821</ele>
        <time>2018-12-28T05:56:49Z</time>
      </trkpt>
      <trkpt lat="36.032850" lon="-111.398180">
        <ele>1329.813</ele>
        <time>2018-12-28T05:57:09Z</time>
      </trkpt>
      <trkpt lat="36.032410" lon="-111.398190">
        <ele>1329.808</ele>
        <time>2018-12-28T05:57:29Z</time>
      </trkpt>
      <trkpt lat="36.032130" lon="-111.398190">
        <ele>1329.319</ele>
        <time>2018-12-28T05:57:49Z</time>
      </trkpt>
      <trkpt lat="36.031570" lon="-111.398180">
        <ele>1328.117</ele>
        <time>2018-12-28T05:58:09Z</time>
      </trkpt>
      <trkpt lat="36.031460" lon="-111.398180">
        <ele>1328.022</ele>
        <time>2018-12-28T05:58:29Z</time>
      </trkpt>
      <trkpt lat="36.031160" lon="-111.398170">
        <ele>1327.653</ele>
        <time>2018-12-28T05:58:49Z</time>
      </trkpt>
      <trkpt lat="36.030980" lon="-111.398170">
        <ele>1327.488</ele>
        <time>2018-12-28T05:59:09Z</time>
      </trkpt>
      <trkpt lat="36.030780" lon="-111.398160">
        <ele>1327.236</ele>
        <time>2018-12-28T05:59:29Z</time>
      </trkpt>
      <trkpt lat="36.030600" lon="-111.398150">
        <ele>1327.158</ele>
        <time>2018-12-28T05:59:49Z</time>
      </trkpt>
      <trkpt lat="36.030490" lon="-111.398150">
        <ele>1327.197</ele>
        <time>2018-12-28T06:00:09Z</time>
      </trkpt>
      <trkpt lat="36.029770" lon="-111.398110">
        <ele>1326.532</ele>
        <time>2018-12-28T06:00:29Z</time>
      </trkpt>
      <trkpt lat="36.029580" lon="-111.398090">
        <ele>1326.592</ele>
        <time>2018-12-28T06:00:49Z</time>
      </trkpt>
      <trkpt lat="36.029430" lon="-111.398080">
        <ele>1326.311</ele>
        <time>2018-12-28T06:01:09Z</time>
      </trkpt>
      <trkpt lat="36.029230" lon="-111.398060">
        <ele>1326.208</ele>
        <time>2018-12-28T06:01:29Z</time>
      </trkpt>
      <trkpt lat="36.028980" lon="-111.398030">
        <ele>1326.086</ele>
        <time>2018-12-28T06:01:49Z</time>
      </trkpt>
      <trkpt lat="36.028420" lon="-111.397960">
        <ele>1325.734</ele>
        <time>2018-12-28T06:02:09Z</time>
      </trkpt>
      <trkpt lat="36.027650" lon="-111.397850">
        <ele>1325.169</ele>
        <time>2018-12-28T06:02:29Z</time>
      </trkpt>
      <trkpt lat="36.026940" lon="-111.397710">
        <ele>1324.740</ele>
        <time>2018-12-28T06:02:49Z</time>
      </trkpt>
      <trkpt lat="36.025490" lon="-111.397440">
        <ele>1322.185</ele>
        <time>2018-12-28T06:03:09Z</time>
      </trkpt>
      <trkpt lat="36.025370" lon="-111.397420">
        <ele>1321.823</ele>
        <time>2018-12-28T06:03:29Z</time>
      </trkpt>
      <trkpt lat="36.025170" lon="-111.397380">
        <ele>1321.465</ele>
        <time>2018-12-28T06:03:49Z</time>
      </trkpt>
      <trkpt lat="36.024340" lon="-111.397230">
        <ele>1319.734</ele>
        <time>2018-12-28T06:04:09Z</time>
      </trkpt>
      <trkpt lat="36.023160" lon="-111.396990">
        <ele>1317.424</ele>
        <time>2018-12-28T06:04:29Z</time>
      </trkpt>
      <trkpt lat="36.022670" lon="-111.396900">
        <ele>1319.904</ele>
        <time>2018-12-28T06:04:49Z</time>
      </trkpt>
      <trkpt lat="36.022390" lon="-111.396840">
        <ele>1321.014</ele>
        <time>2018-12-28T06:05:09Z</time>
      </trkpt>
      <trkpt lat="36.022170" lon="-111.396810">
        <ele>1321.608</ele>
        <time>2018-12-28T06:05:29Z</time>
      </trkpt>
      <trkpt lat="36.021940" lon="-111.396770">
        <ele>1322.125</ele>
        <time>2018-12-28T06:05:49Z</time>
      </trkpt>
      <trkpt lat="36.021480" lon="-111.396700">
        <ele>1322.533</ele>
        <time>2018-12-28T06:06:09Z</time>
      </trkpt>
      <trkpt lat="36.021150" lon="-111.396650">
        <ele>1322.588</ele>
        <time>2018-12-28T06:06:29Z</time>
      </trkpt>
      <trkpt lat="36.020510" lon="-111.396570">
        <ele>1321.799</ele>
        <time>2018-12-28T06:06:49Z</time>
      </trkpt>
      <trkpt lat="36.020060" lon="-111.396510">
        <ele>1321.114</ele>
        <time>2018-12-28T06:07:09Z</time>
      </trkpt>
      <trkpt lat="36.018620" lon="-111.396320">
        <ele>1320.672</ele>
        <time>2018-12-28T06:07:29Z</time>
      </trkpt>
      <trkpt lat="36.017370" lon="-111.396150">
        <ele>1320.874</ele>
        <time>2018-12-28T06:07:49Z</time>
      </trkpt>
      <trkpt lat="36.016800" lon="-111.396070">
        <ele>1320.333</ele>
        <time>2018-12-28T06:08:09Z</time>
      </trkpt>
      <trkpt lat="36.015820" lon="-111.395900">
        <ele>1319.627</ele>
        <time>2018-12-28T06:08:29Z</time>
      </trkpt>
      <trkpt lat="36.015250" lon="-111.395810">
        <ele>1318.668</ele>
        <time>2018-12-28T06:08:49Z</time>
      </trkpt>
      <trkpt lat="36.014500" lon="-111.395680">
        <ele>1318.414</ele>
        <time>2018-12-28T06:09:09Z</time>
      </trkpt>
      <trkpt lat="36.013940" lon="-111.395590">
        <ele>1319.108</ele>
        <time>2018-12-28T06:09:29Z</time>
      </trkpt>
      <trkpt lat="36.013450" lon="-111.395510">
        <ele>1319.725</ele>
        <time>2018-12-28T06:09:49Z</time>
      </trkpt>
      <trkpt lat="36.013080" lon="-111.395450">
        <ele>1320.163</ele>
        <time>2018-12-28T06:10:09Z</time>
      </trkpt>
      <trkpt lat="36.012780" lon="-111.395390">
        <ele>1320.588</ele>
        <time>2018-12-28T06:10:29Z</time>
      </trkpt>
      <trkpt lat="36.011960" lon="-111.395260">
        <ele>1320.999</ele>
        <time>2018-12-28T06:10:49Z</time>
      </trkpt>
      <trkpt lat="36.010160" lon="-111.394950">
        <ele>1321.194</ele>
        <time>2018-12-28T06:11:09Z</time>
      </trkpt>
      <trkpt lat="36.009960" lon="-111.394920">
        <ele>1321.112</ele>
        <time>2018-12-28T06:11:29Z</time>
      </trkpt>
      <trkpt lat="36.009700" lon="-111.394880">
        <ele>1321.174</ele>
        <time>2018-12-28T06:11:49Z</time>
      </trkpt>
      <trkpt lat="36.009100" lon="-111.394780">
        <ele>1320.883</ele>
        <time>2018-12-28T06:12:09Z</time>
      </trkpt>
      <trkpt lat="36.008560" lon="-111.394680">
        <ele>1320.833</ele>
        <time>2018-12-28T06:12:29Z</time>
      </trkpt>
      <trkpt lat="36.007580" lon="-111.394510">
        <ele>1319.423</ele>
        <time>2018-12-28T06:12:49Z</time>
      </trkpt>
      <trkpt lat="36.007140" lon="-111.394440">
        <ele>1319.415</ele>
        <time>2018-12-28T06:13:09Z</time>
      </trkpt>
      <trkpt lat="36.006770" lon="-111.394380">
        <ele>1319.808</ele>
        <time>2018-12-28T06:13:29Z</time>
      </trkpt>
      <trkpt lat="36.005950" lon="-111.394240">
        <ele>1321.196</ele>
        <time>2018-12-28T06:13:49Z</time>
      </trkpt>
      <trkpt lat="36.005510" lon="-111.394170">
        <ele>1321.874</ele>
        <time>2018-12-28T06:14:09Z</time>
      </trkpt>
      <trkpt lat="36.004750" lon="-111.394040">
        <ele>1324.269</ele>
        <time>2018-12-28T06:14:29Z</time>
      </trkpt>
      <trkpt lat="36.004390" lon="-111.393980">
        <ele>1323.990</ele>
        <time>2018-12-28T06:14:49Z</time>
      </trkpt>
      <trkpt lat="36.003780" lon="-111.393880">
        <ele>1324.895</ele>
        <time>2018-12-28T06:15:09Z</time>
      </trkpt>
      <trkpt lat="36.003520" lon="-111.393830">
        <ele>1326.723</ele>
        <time>2018-12-28T06:15:29Z</time>
      </trkpt>
      <trkpt lat="36.003180" lon="-111.393780">
        <ele>1328.845</ele>
        <time>2018-12-28T06:15:49Z</time>
      </trkpt>
      <trkpt lat="36.002550" lon="-111.393670">
        <ele>1328.814</ele>
        <time>2018-12-28T06:16:09Z</time>
      </trkpt>
      <trkpt lat="36.001290" lon="-111.393450">
        <ele>1327.068</ele>
        <time>2018-12-28T06:16:29Z</time>
      </trkpt>
      <trkpt lat="36.001060" lon="-111.393410">
        <ele>1326.742</ele>
        <time>2018-12-28T06:16:49Z</time>
      </trkpt>
      <trkpt lat="36.000530" lon="-111.393330">
        <ele>1326.526</ele>
        <time>2018-12-28T06:17:09Z</time>
      </trkpt>
      <trkpt lat="36.000340" lon="-111.393300">
        <ele>1326.608</ele>
        <time>2018-12-28T06:17:29Z</time>
      </trkpt>
      <trkpt lat="36.000020" lon="-111.393250">
        <ele>1326.949</ele>
        <time>2018-12-28T06:17:49Z</time>
      </trkpt>
      <trkpt lat="35.999810" lon="-111.393210">
        <ele>1326.697</ele>
        <time>2018-12-28T06:18:09Z</time>
      </trkpt>
      <trkpt lat="35.999610" lon="-111.393190">
        <ele>1326.632</ele>
        <time>2018-12-28T06:18:29Z</time>
      </trkpt>
      <trkpt lat="35.998990" lon="-111.393110">
        <ele>1327.823</ele>
        <time>2018-12-28T06:18:49Z</time>
      </trkpt>
      <trkpt lat="35.998560" lon="-111.393070">
        <ele>1329.178</ele>
        <time>2018-12-28T06:19:09Z</time>
      </trkpt>
      <trkpt lat="35.998510" lon="-111.393060">
        <ele>1329.376</ele>
        <time>2018-12-28T06:19:29Z</time>
      </trkpt>
      <trkpt lat="35.997760" lon="-111.392990">
        <ele>1330.758</ele>
        <time>2018-12-28T06:19:49Z</time>
      </trkpt>
      <trkpt lat="35.997400" lon="-111.392960">
        <ele>1331.337</ele>
        <time>2018-12-28T06:20:09Z</time>
      </trkpt>
      <trkpt lat="35.996650" lon="-111.392920">
        <ele>1334.268</ele>
        <time>2018-12-28T06:20:29Z</time>
      </trkpt>
      <trkpt lat="35.996190" lon="-111.392910">
        <ele>1339.442</ele>
        <time>2018-12-28T06:20:49Z</time>
      </trkpt>
      <trkpt lat="35.995640" lon="-111.392900">
        <ele>1340.826</ele>
        <time>2018-12-28T06:21:09Z</time>
      </trkpt>
      <trkpt lat="35.994700" lon="-111.392890">
        <ele>1339.508</ele>
        <time>2018-12-28T06:21:29Z</time>
      </trkpt>
      <trkpt lat="35.994400" lon="-111.392890">
        <ele>1337.919</ele>
        <time>2018-12-28T06:21:49Z</time>
      </trkpt>
      <trkpt lat="35.994080" lon="-111.392890">
        <ele>1335.947</ele>
        <time>2018-12-28T06:22:09Z</time>
      </trkpt>
      <trkpt lat="35.993800" lon="-111.392890">
        <ele>1334.372</ele>
        <time>2018-12-28T06:22:29Z</time>
      </trkpt>
      <trkpt lat="35.993570" lon="-111.392890">
        <ele>1333.423</ele>
        <time>2018-12-28T06:22:49Z</time>
      </trkpt>
      <trkpt lat="35.993300" lon="-111.392900">
        <ele>1332.358</ele>
        <time>2018-12-28T06:23:09Z</time>
      </trkpt>
      <trkpt lat="35.992900" lon="-111.392920">
        <ele>1330.666</ele>
        <time>2018-12-28T06:23:29Z</time>
      </trkpt>
      <trkpt lat="35.992180" lon="-111.392960">
        <ele>1329.868</ele>
        <time>2018-12-28T06:23:49Z</time>
      </trkpt>
      <trkpt lat="35.991860" lon="-111.392990">
        <ele>1329.717</ele>
        <time>2018-12-28T06:24:09Z</time>
      </trkpt>
      <trkpt lat="35.991550" lon="-111.393010">
        <ele>1329.723</ele>
        <time>2018-12-28T06:24:29Z</time>
      </trkpt>
      <trkpt lat="35.991250" lon="-111.393040">
        <ele>1328.883</ele>
        <time>2018-12-28T06:24:49Z</time>
      </trkpt>
      <trkpt lat="35.990440" lon="-111.393130">
        <ele>1328.611</ele>
        <time>2018-12-28T06:25:09Z</time>
      </trkpt>
      <trkpt lat="35.989790" lon="-111.393210">
        <ele>1329.708</ele>
        <time>2018-12-28T06:25:29Z</time>
      </trkpt>
      <trkpt lat="35.989290" lon="-111.393280">
        <ele>1329.895</ele>
        <time>2018-12-28T06:25:49Z</time>
      </trkpt>
      <trkpt lat="35.987930" lon="-111.393460">
        <ele>1328.593</ele>
        <time>2018-12-28T06:26:09Z</time>
      </trkpt>
      <trkpt lat="35.985380" lon="-111.393810">
        <ele>1323.028</ele>
        <time>2018-12-28T06:26:29Z</time>
      </trkpt>
      <trkpt lat="35.984920" lon="-111.393870">
        <ele>1321.619</ele>
        <time>2018-12-28T06:26:49Z</time>
      </trkpt>
      <trkpt lat="35.984430" lon="-111.393940">
        <ele>1320.584</ele>
        <time>2018-12-28T06:27:09Z</time>
      </trkpt>
      <trkpt lat="35.983620" lon="-111.394050">
        <ele>1319.662</ele>
        <time>2018-12-28T06:27:29Z</time>
      </trkpt>
      <trkpt lat="35.983030" lon="-111.394130">
        <ele>1319.144</ele>
        <time>2018-12-28T06:27:49Z</time>
      </trkpt>
      <trkpt lat="35.982800" lon="-111.394160">
        <ele>1318.853</ele>
        <time>2018-12-28T06:28:09Z</time>
      </trkpt>
      <trkpt lat="35.982050" lon="-111.394270">
        <ele>1317.787</ele>
        <time>2018-12-28T06:28:29Z</time>
      </trkpt>
      <trkpt lat="35.979240" lon="-111.394660">
        <ele>1317.842</ele>
        <time>2018-12-28T06:28:49Z</time>
      </trkpt>
      <trkpt lat="35.977500" lon="-111.394900">
        <ele>1317.626</ele>
        <time>2018-12-28T06:29:09Z</time>
      </trkpt>
      <trkpt lat="35.976060" lon="-111.395100">
        <ele>1315.608</ele>
        <time>2018-12-28T06:29:29Z</time>
      </trkpt>
      <trkpt lat="35.975200" lon="-111.395210">
        <ele>1315.761</ele>
        <time>2018-12-28T06:29:49Z</time>
      </trkpt>
      <trkpt lat="35.972500" lon="-111.395580">
        <ele>1315.729</ele>
        <time>2018-12-28T06:30:09Z</time>
      </trkpt>
      <trkpt lat="35.972190" lon="-111.395630">
        <ele>1316.514</ele>
        <time>2018-12-28T06:30:29Z</time>
      </trkpt>
      <trkpt lat="35.969070" lon="-111.396050">
        <ele>1318.515</ele>
        <time>2018-12-28T06:30:49Z</time>
      </trkpt>
      <trkpt lat="35.968190" lon="-111.396180">
        <ele>1324.340</ele>
        <time>2018-12-28T06:31:09Z</time>
      </trkpt>
      <trkpt lat="35.967430" lon="-111.396280">
        <ele>1325.838</ele>
        <time>2018-12-28T06:31:29Z</time>
      </trkpt>
      <trkpt lat="35.966640" lon="-111.396380">
        <ele>1326.480</ele>
        <time>2018-12-28T06:31:49Z</time>
      </trkpt>
      <trkpt lat="35.965960" lon="-111.396480">
        <ele>1328.129</ele>
        <time>2018-12-28T06:32:09Z</time>
      </trkpt>
      <trkpt lat="35.965160" lon="-111.396590">
        <ele>1327.947</ele>
        <time>2018-12-28T06:32:29Z</time>
      </trkpt>
      <trkpt lat="35.964370" lon="-111.396700">
        <ele>1325.329</ele>
        <time>2018-12-28T06:32:49Z</time>
      </trkpt>
      <trkpt lat="35.962710" lon="-111.396910">
        <ele>1317.621</ele>
        <time>2018-12-28T06:33:09Z</time>
      </trkpt>
      <trkpt lat="35.958690" lon="-111.397470">
        <ele>1313.508</ele>
        <time>2018-12-28T06:33:29Z</time>
      </trkpt>
      <trkpt lat="35.958340" lon="-111.397510">
        <ele>1313.327</ele>
        <time>2018-12-28T06:33:49Z</time>
      </trkpt>
      <trkpt lat="35.957340" lon="-111.397660">
        <ele>1312.235</ele>
        <time>2018-12-28T06:34:09Z</time>
      </trkpt>
      <trkpt lat="35.956900" lon="-111.397720">
        <ele>1311.540</ele>
        <time>2018-12-28T06:34:29Z</time>
      </trkpt>
      <trkpt lat="35.955740" lon="-111.397880">
        <ele>1309.791</ele>
        <time>2018-12-28T06:34:49Z</time>
      </trkpt>
      <trkpt lat="35.954020" lon="-111.398120">
        <ele>1308.256</ele>
        <time>2018-12-28T06:35:09Z</time>
      </trkpt>
      <trkpt lat="35.952900" lon="-111.398270">
        <ele>1307.474</ele>
        <time>2018-12-28T06:35:29Z</time>
      </trkpt>
      <trkpt lat="35.952340" lon="-111.398340">
        <ele>1306.936</ele>
        <time>2018-12-28T06:35:49Z</time>
      </trkpt>
      <trkpt lat="35.951460" lon="-111.398460">
        <ele>1306.145</ele>
        <time>2018-12-28T06:36:09Z</time>
      </trkpt>
      <trkpt lat="35.950460" lon="-111.398600">
        <ele>1305.443</ele>
        <time>2018-12-28T06:36:29Z</time>
      </trkpt>
      <trkpt lat="35.949960" lon="-111.398670">
        <ele>1305.464</ele>
        <time>2018-12-28T06:36:49Z</time>
      </trkpt>
      <trkpt lat="35.949230" lon="-111.398770">
        <ele>1305.410</ele>
        <time>2018-12-28T06:37:09Z</time>
      </trkpt>
      <trkpt lat="35.948530" lon="-111.398870">
        <ele>1305.408</ele>
        <time>2018-12-28T06:37:29Z</time>
      </trkpt>
      <trkpt lat="35.947470" lon="-111.399010">
        <ele>1304.647</ele>
        <time>2018-12-28T06:37:49Z</time>
      </trkpt>
      <trkpt lat="35.946680" lon="-111.399120">
        <ele>1304.285</ele>
        <time>2018-12-28T06:38:09Z</time>
      </trkpt>
      <trkpt lat="35.946260" lon="-111.399180">
        <ele>1303.540</ele>
        <time>2018-12-28T06:38:29Z</time>
      </trkpt>
      <trkpt lat="35.944360" lon="-111.399430">
        <ele>1302.281</ele>
        <time>2018-12-28T06:38:49Z</time>
      </trkpt>
      <trkpt lat="35.943650" lon="-111.399530">
        <ele>1300.416</ele>
        <time>2018-12-28T06:39:09Z</time>
      </trkpt>
      <trkpt lat="35.943380" lon="-111.399560">
        <ele>1300.044</ele>
        <time>2018-12-28T06:39:29Z</time>
      </trkpt>
      <trkpt lat="35.943010" lon="-111.399610">
        <ele>1299.976</ele>
        <time>2018-12-28T06:39:49Z</time>
      </trkpt>
      <trkpt lat="35.941950" lon="-111.399750">
        <ele>1299.545</ele>
        <time>2018-12-28T06:40:09Z</time>
      </trkpt>
      <trkpt lat="35.941420" lon="-111.399820">
        <ele>1298.889</ele>
        <time>2018-12-28T06:40:29Z</time>
      </trkpt>
      <trkpt lat="35.940650" lon="-111.399920">
        <ele>1293.406</ele>
        <time>2018-12-28T06:40:49Z</time>
      </trkpt>
      <trkpt lat="35.940360" lon="-111.399950">
        <ele>1293.226</ele>
        <time>2018-12-28T06:41:09Z</time>
      </trkpt>
      <trkpt lat="35.939200" lon="-111.400110">
        <ele>1293.208</ele>
        <time>2018-12-28T06:41:29Z</time>
      </trkpt>
      <trkpt lat="35.938310" lon="-111.400240">
        <ele>1293.291</ele>
        <time>2018-12-28T06:41:49Z</time>
      </trkpt>
      <trkpt lat="35.937780" lon="-111.400310">
        <ele>1293.299</ele>
        <time>2018-12-28T06:42:09Z</time>
      </trkpt>
      <trkpt lat="35.936690" lon="-111.400460">
        <ele>1293.094</ele>
        <time>2018-12-28T06:42:29Z</time>
      </trkpt>
      <trkpt lat="35.936050" lon="-111.400540">
        <ele>1291.875</ele>
        <time>2018-12-28T06:42:49Z</time>
      </trkpt>
      <trkpt lat="35.934790" lon="-111.400720">
        <ele>1292.560</ele>
        <time>2018-12-28T06:43:09Z</time>
      </trkpt>
      <trkpt lat="35.934020" lon="-111.400820">
        <ele>1293.278</ele>
        <time>2018-12-28T06:43:29Z</time>
      </trkpt>
      <trkpt lat="35.931860" lon="-111.401100">
        <ele>1297.590</ele>
        <time>2018-12-28T06:43:49Z</time>
      </trkpt>
      <trkpt lat="35.929260" lon="-111.401450">
        <ele>1291.559</ele>
        <time>2018-12-28T06:44:09Z</time>
      </trkpt>
      <trkpt lat="35.928630" lon="-111.401530">
        <ele>1291.242</ele>
        <time>2018-12-28T06:44:29Z</time>
      </trkpt>
      <trkpt lat="35.927390" lon="-111.401700">
        <ele>1292.722</ele>
        <time>2018-12-28T06:44:49Z</time>
      </trkpt>
      <trkpt lat="35.926540" lon="-111.401820">
        <ele>1292.114</ele>
        <time>2018-12-28T06:45:09Z</time>
      </trkpt>
      <trkpt lat="35.924310" lon="-111.402120">
        <ele>1290.408</ele>
        <time>2018-12-28T06:45:29Z</time>
      </trkpt>
      <trkpt lat="35.923640" lon="-111.402220">
        <ele>1289.897</ele>
        <time>2018-12-28T06:45:49Z</time>
      </trkpt>
      <trkpt lat="35.922010" lon="-111.402430">
        <ele>1288.365</ele>
        <time>2018-12-28T06:46:09Z</time>
      </trkpt>
      <trkpt lat="35.920960" lon="-111.402580">
        <ele>1287.340</ele>
        <time>2018-12-28T06:46:29Z</time>
      </trkpt>
      <trkpt lat="35.920340" lon="-111.402660">
        <ele>1286.781</ele>
        <time>2018-12-28T06:46:49Z</time>
      </trkpt>
      <trkpt lat="35.918980" lon="-111.402850">
        <ele>1285.316</ele>
        <time>2018-12-28T06:47:09Z</time>
      </trkpt>
      <trkpt lat="35.915650" lon="-111.403300">
        <ele>1281.334</ele>
        <time>2018-12-28T06:47:29Z</time>
      </trkpt>
      <trkpt lat="35.915460" lon="-111.403330">
        <ele>1281.396</ele>
        <time>2018-12-28T06:47:49Z</time>
      </trkpt>
      <trkpt lat="35.914820" lon="-111.403410">
        <ele>1281.065</ele>
        <time>2018-12-28T06:48:09Z</time>
      </trkpt>
      <trkpt lat="35.913860" lon="-111.403550">
        <ele>1281.096</ele>
        <time>2018-12-28T06:48:29Z</time>
      </trkpt>
      <trkpt lat="35.913290" lon="-111.403630">
        <ele>1281.031</ele>
        <time>2018-12-28T06:48:49Z</time>
      </trkpt>
      <trkpt lat="35.912850" lon="-111.403700">
        <ele>1281.024</ele>
        <time>2018-12-28T06:49:09Z</time>
      </trkpt>
      <trkpt lat="35.911480" lon="-111.403890">
        <ele>1280.708</ele>
        <time>2018-12-28T06:49:29Z</time>
      </trkpt>
      <trkpt lat="35.909580" lon="-111.404150">
        <ele>1278.362</ele>
        <time>2018-12-28T06:49:49Z</time>
      </trkpt>
      <trkpt lat="35.909110" lon="-111.404210">
        <ele>1278.330</ele>
        <time>2018-12-28T06:50:09Z</time>
      </trkpt>
      <trkpt lat="35.908460" lon="-111.404300">
        <ele>1278.095</ele>
        <time>2018-12-28T06:50:29Z</time>
      </trkpt>
      <trkpt lat="35.907170" lon="-111.404480">
        <ele>1277.046</ele>
        <time>2018-12-28T06:50:49Z</time>
      </trkpt>
      <trkpt lat="35.906960" lon="-111.404510">
        <ele>1276.841</ele>
        <time>2018-12-28T06:51:09Z</time>
      </trkpt>
      <trkpt lat="35.905480" lon="-111.404710">
        <ele>1275.219</ele>
        <time>2018-12-28T06:51:29Z</time>
      </trkpt>
      <trkpt lat="35.904410" lon="-111.404860">
        <ele>1275.181</ele>
        <time>2018-12-28T06:51:49Z</time>
      </trkpt>
      <trkpt lat="35.903700" lon="-111.404950">
        <ele>1275.170</ele>
        <time>2018-12-28T06:52:09Z</time>
      </trkpt>
      <trkpt lat="35.903260" lon="-111.405010">
        <ele>1275.199</ele>
        <time>2018-12-28T06:52:29Z</time>
      </trkpt>
      <trkpt lat="35.902720" lon="-111.405080">
        <ele>1275.107</ele>
        <time>2018-12-28T06:52:49Z</time>
      </trkpt>
      <trkpt lat="35.900400" lon="-111.405400">
        <ele>1275.227</ele>
        <time>2018-12-28T06:53:09Z</time>
      </trkpt>
      <trkpt lat="35.899280" lon="-111.405560">
        <ele>1275.108</ele>
        <time>2018-12-28T06:53:29Z</time>
      </trkpt>
      <trkpt lat="35.899100" lon="-111.405580">
        <ele>1275.122</ele>
        <time>2018-12-28T06:53:49Z</time>
      </trkpt>
      <trkpt lat="35.898850" lon="-111.405620">
        <ele>1275.280</ele>
        <time>2018-12-28T06:54:09Z</time>
      </trkpt>
      <trkpt lat="35.898430" lon="-111.405690">
        <ele>1275.245</ele>
        <time>2018-12-28T06:54:29Z</time>
      </trkpt>
      <trkpt lat="35.897300" lon="-111.405880">
        <ele>1275.646</ele>
        <time>2018-12-28T06:54:49Z</time>
      </trkpt>
      <trkpt lat="35.896710" lon="-111.405990">
        <ele>1276.461</ele>
        <time>2018-12-28T06:55:09Z</time>
      </trkpt>
      <trkpt lat="35.896400" lon="-111.406050">
        <ele>1276.719</ele>
        <time>2018-12-28T06:55:29Z</time>
      </trkpt>
      <trkpt lat="35.895930" lon="-111.406140">
        <ele>1277.371</ele>
        <time>2018-12-28T06:55:49Z</time>
      </trkpt>
      <trkpt lat="35.895480" lon="-111.406240">
        <ele>1277.450</ele>
        <time>2018-12-28T06:56:09Z</time>
      </trkpt>
      <trkpt lat="35.894510" lon="-111.406440">
        <ele>1278.573</ele>
        <time>2018-12-28T06:56:29Z</time>
      </trkpt>
      <trkpt lat="35.894120" lon="-111.406520">
        <ele>1279.085</ele>
        <time>2018-12-28T06:56:49Z</time>
      </trkpt>
      <trkpt lat="35.893420" lon="-111.406680">
        <ele>1280.813</ele>
        <time>2018-12-28T06:57:09Z</time>
      </trkpt>
      <trkpt lat="35.892240" lon="-111.406970">
        <ele>1280.708</ele>
        <time>2018-12-28T06:57:29Z</time>
      </trkpt>
      <trkpt lat="35.892070" lon="-111.407020">
        <ele>1280.330</ele>
        <time>2018-12-28T06:57:49Z</time>
      </trkpt>
      <trkpt lat="35.891720" lon="-111.407100">
        <ele>1280.368</ele>
        <time>2018-12-28T06:58:09Z</time>
      </trkpt>
      <trkpt lat="35.891140" lon="-111.407250">
        <ele>1279.243</ele>
        <time>2018-12-28T06:58:29Z</time>
      </trkpt>
      <trkpt lat="35.889310" lon="-111.407760">
        <ele>1272.834</ele>
        <time>2018-12-28T06:58:49Z</time>
      </trkpt>
      <trkpt lat="35.889050" lon="-111.407850">
        <ele>1272.249</ele>
        <time>2018-12-28T06:59:09Z</time>
      </trkpt>
      <trkpt lat="35.888370" lon="-111.408050">
        <ele>1269.977</ele>
        <time>2018-12-28T06:59:29Z</time>
      </trkpt>
      <trkpt lat="35.887770" lon="-111.408230">
        <ele>1268.899</ele>
        <time>2018-12-28T06:59:49Z</time>
      </trkpt>
      <trkpt lat="35.887450" lon="-111.408330">
        <ele>1268.978</ele>
        <time>2018-12-28T07:00:09Z</time>
      </trkpt>
      <trkpt lat="35.886900" lon="-111.408490">
        <ele>1267.951</ele>
        <time>2018-12-28T07:00:29Z</time>
      </trkpt>
      <trkpt lat="35.886340" lon="-111.408670">
        <ele>1266.701</ele>
        <time>2018-12-28T07:00:49Z</time>
      </trkpt>
      <trkpt lat="35.885730" lon="-111.408870">
        <ele>1266.111</ele>
        <time>2018-12-28T07:01:09Z</time>
      </trkpt>
      <trkpt lat="35.884700" lon="-111.409180">
        <ele>1266.008</ele>
        <time>2018-12-28T07:01:29Z</time>
      </trkpt>
      <trkpt lat="35.883280" lon="-111.409630">
        <ele>1268.828</ele>
        <time>2018-12-28T07:01:49Z</time>
      </trkpt>
      <trkpt lat="35.882980" lon="-111.409720">
        <ele>1268.836</ele>
        <time>2018-12-28T07:02:09Z</time>
      </trkpt>
      <trkpt lat="35.882600" lon="-111.409830">
        <ele>1268.971</ele>
        <time>2018-12-28T07:02:29Z</time>
      </trkpt>
      <trkpt lat="35.881530" lon="-111.410150">
        <ele>1269.872</ele>
        <time>2018-12-28T07:02:49Z</time>
      </trkpt>
      <trkpt lat="35.881310" lon="-111.410220">
        <ele>1270.787</ele>
        <time>2018-12-28T07:03:09Z</time>
      </trkpt>
      <trkpt lat="35.881250" lon="-111.410240">
        <ele>1271.285</ele>
        <time>2018-12-28T07:03:29Z</time>
      </trkpt>
      <trkpt lat="35.881230" lon="-111.410260">
        <ele>1271.517</ele>
        <time>2018-12-28T07:03:49Z</time>
      </trkpt>
      <trkpt lat="35.881160" lon="-111.410280">
        <ele>1272.976</ele>
        <time>2018-12-28T07:04:09Z</time>
      </trkpt>
      <trkpt lat="35.880980" lon="-111.410340">
        <ele>1275.733</ele>
        <time>2018-12-28T07:04:29Z</time>
      </trkpt>
      <trkpt lat="35.880800" lon="-111.410390">
        <ele>1277.423</ele>
        <time>2018-12-28T07:04:49Z</time>
      </trkpt>
      <trkpt lat="35.880050" lon="-111.410620">
        <ele>1279.215</ele>
        <time>2018-12-28T07:05:09Z</time>
      </trkpt>
      <trkpt lat="35.879880" lon="-111.410660">
        <ele>1279.008</ele>
        <time>2018-12-28T07:05:29Z</time>
      </trkpt>
      <trkpt lat="35.879820" lon="-111.410680">
        <ele>1278.966</ele>
        <time>2018-12-28T07:05:49Z</time>
      </trkpt>
      <trkpt lat="35.879180" lon="-111.410850">
        <ele>1277.844</ele>
        <time>2018-12-28T07:06:09Z</time>
      </trkpt>
      <trkpt lat="35.878710" lon="-111.411000">
        <ele>1275.099</ele>
        <time>2018-12-28T07:06:29Z</time>
      </trkpt>
      <trkpt lat="35.878150" lon="-111.411180">
        <ele>1268.470</ele>
        <time>2018-12-28T07:06:49Z</time>
      </trkpt>
      <trkpt lat="35.877770" lon="-111.411320">
        <ele>1259.195</ele>
        <time>2018-12-28T07:07:09Z</time>
      </trkpt>
      <trkpt lat="35.877440" lon="-111.411420">
        <ele>1257.553</ele>
        <time>2018-12-28T07:07:29Z</time>
      </trkpt>
      <trkpt lat="35.877000" lon="-111.411560">
        <ele>1261.095</ele>
        <time>2018-12-28T07:07:49Z</time>
      </trkpt>
      <trkpt lat="35.876120" lon="-111.411800">
        <ele>1271.334</ele>
        <time>2018-12-28T07:08:09Z</time>
      </trkpt>
      <trkpt lat="35.875800" lon="-111.411880">
        <ele>1275.285</ele>
        <time>2018-12-28T07:08:29Z</time>
      </trkpt>
      <trkpt lat="35.875620" lon="-111.411940">
        <ele>1275.889</ele>
        <time>2018-12-28T07:08:49Z</time>
      </trkpt>
      <trkpt lat="35.875110" lon="-111.412090">
        <ele>1280.517</ele>
        <time>2018-12-28T07:09:09Z</time>
      </trkpt>
      <trkpt lat="35.874630" lon="-111.412230">
        <ele>1286.708</ele>
        <time>2018-12-28T07:09:29Z</time>
      </trkpt>
      <trkpt lat="35.874040" lon="-111.412410">
        <ele>1291.561</ele>
        <time>2018-12-28T07:09:49Z</time>
      </trkpt>
      <trkpt lat="35.873130" lon="-111.412680">
        <ele>1296.329</ele>
        <time>2018-12-28T07:10:09Z</time>
      </trkpt>
      <trkpt lat="35.872350" lon="-111.412920">
        <ele>1299.354</ele>
        <time>2018-12-28T07:10:29Z</time>
      </trkpt>
      <trkpt lat="35.872220" lon="-111.412960">
        <ele>1299.865</ele>
        <time>2018-12-28T07:10:49Z</time>
      </trkpt>
      <trkpt lat="35.872120" lon="-111.412980">
        <ele>1300.180</ele>
        <time>2018-12-28T07:11:09Z</time>
      </trkpt>
      <trkpt lat="35.871610" lon="-111.413140">
        <ele>1301.868</ele>
        <time>2018-12-28T07:11:29Z</time>
      </trkpt>
      <trkpt lat="35.871490" lon="-111.413180">
        <ele>1302.130</ele>
        <time>2018-12-28T07:11:49Z</time>
      </trkpt>
      <trkpt lat="35.871240" lon="-111.413270">
        <ele>1302.629</ele>
        <time>2018-12-28T07:12:09Z</time>
      </trkpt>
      <trkpt lat="35.870880" lon="-111.413400">
        <ele>1303.337</ele>
        <time>2018-12-28T07:12:29Z</time>
      </trkpt>
      <trkpt lat="35.870680" lon="-111.413470">
        <ele>1303.449</ele>
        <time>2018-12-28T07:12:49Z</time>
      </trkpt>
      <trkpt lat="35.870290" lon="-111.413620">
        <ele>1304.713</ele>
        <time>2018-12-28T07:13:09Z</time>
      </trkpt>
      <trkpt lat="35.870150" lon="-111.413670">
        <ele>1305.308</ele>
        <time>2018-12-28T07:13:29Z</time>
      </trkpt>
      <trkpt lat="35.870030" lon="-111.413720">
        <ele>1305.586</ele>
        <time>2018-12-28T07:13:49Z</time>
      </trkpt>
      <trkpt lat="35.869640" lon="-111.413870">
        <ele>1305.724</ele>
        <time>2018-12-28T07:14:09Z</time>
      </trkpt>
      <trkpt lat="35.869330" lon="-111.414000">
        <ele>1306.159</ele>
        <time>2018-12-28T07:14:29Z</time>
      </trkpt>
      <trkpt lat="35.869040" lon="-111.414120">
        <ele>1306.330</ele>
        <time>2018-12-28T07:14:49Z</time>
      </trkpt>
      <trkpt lat="35.868730" lon="-111.414260">
        <ele>1306.865</ele>
        <time>2018-12-28T07:15:09Z</time>
      </trkpt>
      <trkpt lat="35.868650" lon="-111.414300">
        <ele>1306.993</ele>
        <time>2018-12-28T07:15:29Z</time>
      </trkpt>
      <trkpt lat="35.868480" lon="-111.414380">
        <ele>1307.195</ele>
        <time>2018-12-28T07:15:49Z</time>
      </trkpt>
      <trkpt lat="35.868310" lon="-111.414460">
        <ele>1307.544</ele>
        <time>2018-12-28T07:16:09Z</time>
      </trkpt>
      <trkpt lat="35.867590" lon="-111.414800">
        <ele>1308.699</ele>
        <time>2018-12-28T07:16:29Z</time>
      </trkpt>
      <trkpt lat="35.866990" lon="-111.415120">
        <ele>1309.607</ele>
        <time>2018-12-28T07:16:49Z</time>
      </trkpt>
      <trkpt lat="35.866800" lon="-111.415230">
        <ele>1309.827</ele>
        <time>2018-12-28T07:17:09Z</time>
      </trkpt>
      <trkpt lat="35.866410" lon="-111.415450">
        <ele>1310.608</ele>
        <time>2018-12-28T07:17:29Z</time>
      </trkpt>
      <trkpt lat="35.865970" lon="-111.415700">
        <ele>1311.512</ele>
        <time>2018-12-28T07:17:49Z</time>
      </trkpt>
      <trkpt lat="35.865570" lon="-111.415930">
        <ele>1312.570</ele>
        <time>2018-12-28T07:18:09Z</time>
      </trkpt>
      <trkpt lat="35.865340" lon="-111.416070">
        <ele>1313.185</ele>
        <time>2018-12-28T07:18:29Z</time>
      </trkpt>
      <trkpt lat="35.865270" lon="-111.416120">
        <ele>1313.256</ele>
        <time>2018-12-28T07:18:49Z</time>
      </trkpt>
      <trkpt lat="35.865060" lon="-111.416250">
        <ele>1313.831</ele>
        <time>2018-12-28T07:19:09Z</time>
      </trkpt>
      <trkpt lat="35.863200" lon="-111.417500">
        <ele>1315.019</ele>
        <time>2018-12-28T07:19:29Z</time>
      </trkpt>
      <trkpt lat="35.861950" lon="-111.418470">
        <ele>1315.761</ele>
        <time>2018-12-28T07:19:49Z</time>
      </trkpt>
      <trkpt lat="35.861220" lon="-111.419140">
        <ele>1316.110</ele>
        <time>2018-12-28T07:20:09Z</time>
      </trkpt>
      <trkpt lat="35.860940" lon="-111.419410">
        <ele>1316.597</ele>
        <time>2018-12-28T07:20:29Z</time>
      </trkpt>
      <trkpt lat="35.859470" lon="-111.420810">
        <ele>1324.023</ele>
        <time>2018-12-28T07:20:49Z</time>
      </trkpt>
      <trkpt lat="35.858690" lon="-111.421550">
        <ele>1326.325</ele>
        <time>2018-12-28T07:21:09Z</time>
      </trkpt>
      <trkpt lat="35.858090" lon="-111.422120">
        <ele>1329.108</ele>
        <time>2018-12-28T07:21:29Z</time>
      </trkpt>
      <trkpt lat="35.857740" lon="-111.422450">
        <ele>1331.182</ele>
        <time>2018-12-28T07:21:49Z</time>
      </trkpt>
      <trkpt lat="35.856700" lon="-111.423430">
        <ele>1339.090</ele>
        <time>2018-12-28T07:22:09Z</time>
      </trkpt>
      <trkpt lat="35.856450" lon="-111.423700">
        <ele>1339.545</ele>
        <time>2018-12-28T07:22:29Z</time>
      </trkpt>
      <trkpt lat="35.856040" lon="-111.424120">
        <ele>1337.996</ele>
        <time>2018-12-28T07:22:49Z</time>
      </trkpt>
      <trkpt lat="35.855910" lon="-111.424230">
        <ele>1337.761</ele>
        <time>2018-12-28T07:23:09Z</time>
      </trkpt>
      <trkpt lat="35.855800" lon="-111.424310">
        <ele>1337.789</ele>
        <time>2018-12-28T07:23:29Z</time>
      </trkpt>
      <trkpt lat="35.855650" lon="-111.424420">
        <ele>1337.761</ele>
        <time>2018-12-28T07:23:49Z</time>
      </trkpt>
      <trkpt lat="35.855470" lon="-111.424530">
        <ele>1337.970</ele>
        <time>2018-12-28T07:24:09Z</time>
      </trkpt>
      <trkpt lat="35.855340" lon="-111.424600">
        <ele>1338.248</ele>
        <time>2018-12-28T07:24:29Z</time>
      </trkpt>
      <trkpt lat="35.855300" lon="-111.424620">
        <ele>1338.461</ele>
        <time>2018-12-28T07:24:49Z</time>
      </trkpt>
      <trkpt lat="35.855260" lon="-111.424660">
        <ele>1338.517</ele>
        <time>2018-12-28T07:25:09Z</time>
      </trkpt>
      <trkpt lat="35.855220" lon="-111.424700">
        <ele>1338.708</ele>
        <time>2018-12-28T07:25:29Z</time>
      </trkpt>
      <trkpt lat="35.855180" lon="-111.424750">
        <ele>1338.817</ele>
        <time>2018-12-28T07:25:49Z</time>
      </trkpt>
      <trkpt lat="35.855110" lon="-111.424920">
        <ele>1339.295</ele>
        <time>2018-12-28T07:26:09Z</time>
      </trkpt>
      <trkpt lat="35.855114" lon="-111.424917">
        <ele>1339.280</ele>
        <time>2018-12-28T07:26:29Z</time>
      </trkpt>
      <trkpt lat="35.855120" lon="-111.424930">
        <ele>1339.141</ele>
        <time>2018-12-28T07:26:49Z</time>
      </trkpt>
      <trkpt lat="35.855120" lon="-111.424950">
        <ele>1339.176</ele>
        <time>2018-12-28T07:27:09Z</time>
      </trkpt>
      <trkpt lat="35.855120" lon="-111.424960">
        <ele>1339.174</ele>
        <time>2018-12-28T07:27:29Z</time>
      </trkpt>
      <trkpt lat="35.855120" lon="-111.424980">
        <ele>1339.166</ele>
        <time>2018-12-28T07:27:49Z</time>
      </trkpt>
      <trkpt lat="35.855120" lon="-111.425000">
        <ele>1339.135</ele>
        <time>2018-12-28T07:28:09Z</time>
      </trkpt>
      <trkpt lat="35.855120" lon="-111.425010">
        <ele>1339.128</ele>
        <time>2018-12-28T07:28:29Z</time>
      </trkpt>
      <trkpt lat="35.855110" lon="-111.425030">
        <ele>1339.289</ele>
        <time>2018-12-28T07:28:49Z</time>
      </trkpt>
      <trkpt lat="35.855110" lon="-111.425040">
        <ele>1339.217</ele>
        <time>2018-12-28T07:29:09Z</time>
      </trkpt>
      <trkpt lat="35.855100" lon="-111.425080">
        <ele>1339.208</ele>
        <time>2018-12-28T07:29:29Z</time>
      </trkpt>
      <trkpt lat="35.855090" lon="-111.425100">
        <ele>1339.285</ele>
        <time>2018-12-28T07:29:49Z</time>
      </trkpt>
      <trkpt lat="35.855080" lon="-111.425130">
        <ele>1339.353</ele>
        <time>2018-12-28T07:30:09Z</time>
      </trkpt>
      <trkpt lat="35.855070" lon="-111.425150">
        <ele>1339.348</ele>
        <time>2018-12-28T07:30:29Z</time>
      </trkpt>
      <trkpt lat="35.855050" lon="-111.425170">
        <ele>1339.419</ele>
        <time>2018-12-28T07:30:49Z</time>
      </trkpt>
      <trkpt lat="35.855030" lon="-111.425180">
        <ele>1339.564</ele>
        <time>2018-12-28T07:31:09Z</time>
      </trkpt>
      <trkpt lat="35.855020" lon="-111.425200">
        <ele>1339.532</ele>
        <time>2018-12-28T07:31:29Z</time>
      </trkpt>
      <trkpt lat="35.855000" lon="-111.425210">
        <ele>1339.614</ele>
        <time>2018-12-28T07:31:49Z</time>
      </trkpt>
      <trkpt lat="35.854980" lon="-111.425220">
        <ele>1339.773</ele>
        <time>2018-12-28T07:32:09Z</time>
      </trkpt>
      <trkpt lat="35.854920" lon="-111.425240">
        <ele>1340.014</ele>
        <time>2018-12-28T07:32:29Z</time>
      </trkpt>
      <trkpt lat="35.854860" lon="-111.425240">
        <ele>1340.254</ele>
        <time>2018-12-28T07:32:49Z</time>
      </trkpt>
      <trkpt lat="35.854610" lon="-111.425380">
        <ele>1341.109</ele>
        <time>2018-12-28T07:33:09Z</time>
      </trkpt>
      <trkpt lat="35.854340" lon="-111.425550">
        <ele>1342.208</ele>
        <time>2018-12-28T07:33:29Z</time>
      </trkpt>
      <trkpt lat="35.854250" lon="-111.425640">
        <ele>1342.594</ele>
        <time>2018-12-28T07:33:49Z</time>
      </trkpt>
      <trkpt lat="35.853920" lon="-111.425920">
        <ele>1343.372</ele>
        <time>2018-12-28T07:34:09Z</time>
      </trkpt>
      <trkpt lat="35.853730" lon="-111.426080">
        <ele>1343.597</ele>
        <time>2018-12-28T07:34:29Z</time>
      </trkpt>
      <trkpt lat="35.853610" lon="-111.426190">
        <ele>1343.688</ele>
        <time>2018-12-28T07:34:49Z</time>
      </trkpt>
      <trkpt lat="35.853410" lon="-111.426370">
        <ele>1343.983</ele>
        <time>2018-12-28T07:35:09Z</time>
      </trkpt>
      <trkpt lat="35.853300" lon="-111.426480">
        <ele>1344.221</ele>
        <time>2018-12-28T07:35:29Z</time>
      </trkpt>
      <trkpt lat="35.853080" lon="-111.426670">
        <ele>1344.513</ele>
        <time>2018-12-28T07:35:49Z</time>
      </trkpt>
      <trkpt lat="35.853060" lon="-111.426680">
        <ele>1344.652</ele>
        <time>2018-12-28T07:36:09Z</time>
      </trkpt>
      <trkpt lat="35.852430" lon="-111.427240">
        <ele>1346.824</ele>
        <time>2018-12-28T07:36:29Z</time>
      </trkpt>
      <trkpt lat="35.851490" lon="-111.428060">
        <ele>1352.104</ele>
        <time>2018-12-28T07:36:49Z</time>
      </trkpt>
      <trkpt lat="35.850580" lon="-111.428870">
        <ele>1354.114</ele>
        <time>2018-12-28T07:37:09Z</time>
      </trkpt>
      <trkpt lat="35.850440" lon="-111.429000">
        <ele>1353.708</ele>
        <time>2018-12-28T07:37:29Z</time>
      </trkpt>
      <trkpt lat="35.849020" lon="-111.430270">
        <ele>1354.425</ele>
        <time>2018-12-28T07:37:49Z</time>
      </trkpt>
      <trkpt lat="35.849020" lon="-111.430268">
        <ele>1354.423</ele>
        <time>2018-12-28T07:38:09Z</time>
      </trkpt>
      <trkpt lat="35.848860" lon="-111.430390">
        <ele>1354.788</ele>
        <time>2018-12-28T07:38:29Z</time>
      </trkpt>
      <trkpt lat="35.848290" lon="-111.430910">
        <ele>1355.489</ele>
        <time>2018-12-28T07:38:49Z</time>
      </trkpt>
      <trkpt lat="35.847780" lon="-111.431350">
        <ele>1357.354</ele>
        <time>2018-12-28T07:39:09Z</time>
      </trkpt>
      <trkpt lat="35.847120" lon="-111.431910">
        <ele>1360.292</ele>
        <time>2018-12-28T07:39:29Z</time>
      </trkpt>
      <trkpt lat="35.846840" lon="-111.432130">
        <ele>1361.334</ele>
        <time>2018-12-28T07:39:49Z</time>
      </trkpt>
      <trkpt lat="35.846570" lon="-111.432340">
        <ele>1362.333</ele>
        <time>2018-12-28T07:40:09Z</time>
      </trkpt>
      <trkpt lat="35.846250" lon="-111.432580">
        <ele>1363.131</ele>
        <time>2018-12-28T07:40:29Z</time>
      </trkpt>
      <trkpt lat="35.845900" lon="-111.432830">
        <ele>1363.861</ele>
        <time>2018-12-28T07:40:49Z</time>
      </trkpt>
      <trkpt lat="35.845580" lon="-111.433060">
        <ele>1364.307</ele>
        <time>2018-12-28T07:41:09Z</time>
      </trkpt>
      <trkpt lat="35.845320" lon="-111.433230">
        <ele>1364.808</ele>
        <time>2018-12-28T07:41:29Z</time>
      </trkpt>
      <trkpt lat="35.844940" lon="-111.433480">
        <ele>1365.526</ele>
        <time>2018-12-28T07:41:49Z</time>
      </trkpt>
      <trkpt lat="35.844410" lon="-111.433810">
        <ele>1366.194</ele>
        <time>2018-12-28T07:42:09Z</time>
      </trkpt>
      <trkpt lat="35.843920" lon="-111.434090">
        <ele>1365.849</ele>
        <time>2018-12-28T07:42:29Z</time>
      </trkpt>
      <trkpt lat="35.843670" lon="-111.434240">
        <ele>1365.680</ele>
        <time>2018-12-28T07:42:49Z</time>
      </trkpt>
      <trkpt lat="35.843420" lon="-111.434370">
        <ele>1366.015</ele>
        <time>2018-12-28T07:43:09Z</time>
      </trkpt>
      <trkpt lat="35.843110" lon="-111.434530">
        <ele>1366.573</ele>
        <time>2018-12-28T07:43:29Z</time>
      </trkpt>
      <trkpt lat="35.842850" lon="-111.434660">
        <ele>1367.075</ele>
        <time>2018-12-28T07:43:49Z</time>
      </trkpt>
      <trkpt lat="35.842510" lon="-111.434820">
        <ele>1367.514</ele>
        <time>2018-12-28T07:44:09Z</time>
      </trkpt>
      <trkpt lat="35.842230" lon="-111.434950">
        <ele>1367.753</ele>
        <time>2018-12-28T07:44:29Z</time>
      </trkpt>
      <trkpt lat="35.841730" lon="-111.435190">
        <ele>1368.204</ele>
        <time>2018-12-28T07:44:49Z</time>
      </trkpt>
      <trkpt lat="35.841390" lon="-111.435340">
        <ele>1369.014</ele>
        <time>2018-12-28T07:45:09Z</time>
      </trkpt>
      <trkpt lat="35.840960" lon="-111.435470">
        <ele>1369.608</ele>
        <time>2018-12-28T07:45:29Z</time>
      </trkpt>
      <trkpt lat="35.840300" lon="-111.435710">
        <ele>1369.998</ele>
        <time>2018-12-28T07:45:49Z</time>
      </trkpt>
      <trkpt lat="35.840190" lon="-111.435740">
        <ele>1369.776</ele>
        <time>2018-12-28T07:46:09Z</time>
      </trkpt>
      <trkpt lat="35.839880" lon="-111.435840">
        <ele>1369.551</ele>
        <time>2018-12-28T07:46:29Z</time>
      </trkpt>
      <trkpt lat="35.839370" lon="-111.435990">
        <ele>1369.612</ele>
        <time>2018-12-28T07:46:49Z</time>
      </trkpt>
      <trkpt lat="35.838990" lon="-111.436090">
        <ele>1369.947</ele>
        <time>2018-12-28T07:47:09Z</time>
      </trkpt>
      <trkpt lat="35.838620" lon="-111.436190">
        <ele>1370.645</ele>
        <time>2018-12-28T07:47:29Z</time>
      </trkpt>
      <trkpt lat="35.838030" lon="-111.436340">
        <ele>1372.137</ele>
        <time>2018-12-28T07:47:49Z</time>
      </trkpt>
      <trkpt lat="35.837620" lon="-111.436450">
        <ele>1373.416</ele>
        <time>2018-12-28T07:48:09Z</time>
      </trkpt>
      <trkpt lat="35.837370" lon="-111.436520">
        <ele>1374.045</ele>
        <time>2018-12-28T07:48:29Z</time>
      </trkpt>
      <trkpt lat="35.836210" lon="-111.436830">
        <ele>1377.047</ele>
        <time>2018-12-28T07:48:49Z</time>
      </trkpt>
      <trkpt lat="35.835770" lon="-111.436940">
        <ele>1376.911</ele>
        <time>2018-12-28T07:49:09Z</time>
      </trkpt>
      <trkpt lat="35.835550" lon="-111.437000">
        <ele>1376.408</ele>
        <time>2018-12-28T07:49:29Z</time>
      </trkpt>
      <trkpt lat="35.835150" lon="-111.437100">
        <ele>1375.517</ele>
        <time>2018-12-28T07:49:49Z</time>
      </trkpt>
      <trkpt lat="35.834720" lon="-111.437210">
        <ele>1374.435</ele>
        <time>2018-12-28T07:50:09Z</time>
      </trkpt>
      <trkpt lat="35.834520" lon="-111.437260">
        <ele>1374.140</ele>
        <time>2018-12-28T07:50:29Z</time>
      </trkpt>
      <trkpt lat="35.834340" lon="-111.437310">
        <ele>1373.891</ele>
        <time>2018-12-28T07:50:49Z</time>
      </trkpt>
      <trkpt lat="35.834230" lon="-111.437310">
        <ele>1373.586</ele>
        <time>2018-12-28T07:51:09Z</time>
      </trkpt>
      <trkpt lat="35.833680" lon="-111.437450">
        <ele>1373.394</ele>
        <time>2018-12-28T07:51:29Z</time>
      </trkpt>
      <trkpt lat="35.833570" lon="-111.437490">
        <ele>1373.416</ele>
        <time>2018-12-28T07:51:49Z</time>
      </trkpt>
      <trkpt lat="35.832150" lon="-111.437860">
        <ele>1375.775</ele>
        <time>2018-12-28T07:52:09Z</time>
      </trkpt>
      <trkpt lat="35.831820" lon="-111.437940">
        <ele>1376.382</ele>
        <time>2018-12-28T07:52:29Z</time>
      </trkpt>
      <trkpt lat="35.831650" lon="-111.437980">
        <ele>1376.643</ele>
        <time>2018-12-28T07:52:49Z</time>
      </trkpt>
      <trkpt lat="35.830230" lon="-111.438350">
        <ele>1378.617</ele>
        <time>2018-12-28T07:53:09Z</time>
      </trkpt>
      <trkpt lat="35.828770" lon="-111.438720">
        <ele>1378.108</ele>
        <time>2018-12-28T07:53:29Z</time>
      </trkpt>
      <trkpt lat="35.827040" lon="-111.439140">
        <ele>1377.491</ele>
        <time>2018-12-28T07:53:49Z</time>
      </trkpt>
      <trkpt lat="35.826160" lon="-111.439360">
        <ele>1374.299</ele>
        <time>2018-12-28T07:54:09Z</time>
      </trkpt>
      <trkpt lat="35.825600" lon="-111.439510">
        <ele>1372.524</ele>
        <time>2018-12-28T07:54:29Z</time>
      </trkpt>
      <trkpt lat="35.824740" lon="-111.439740">
        <ele>1371.635</ele>
        <time>2018-12-28T07:54:49Z</time>
      </trkpt>
      <trkpt lat="35.824650" lon="-111.439790">
        <ele>1371.790</ele>
        <time>2018-12-28T07:55:09Z</time>
      </trkpt>
      <trkpt lat="35.824410" lon="-111.439850">
        <ele>1371.898</ele>
        <time>2018-12-28T07:55:29Z</time>
      </trkpt>
      <trkpt lat="35.824110" lon="-111.439930">
        <ele>1372.380</ele>
        <time>2018-12-28T07:55:49Z</time>
      </trkpt>
      <trkpt lat="35.823790" lon="-111.440020">
        <ele>1372.959</ele>
        <time>2018-12-28T07:56:09Z</time>
      </trkpt>
      <trkpt lat="35.823540" lon="-111.440110">
        <ele>1373.344</ele>
        <time>2018-12-28T07:56:29Z</time>
      </trkpt>
      <trkpt lat="35.823150" lon="-111.440200">
        <ele>1373.905</ele>
        <time>2018-12-28T07:56:49Z</time>
      </trkpt>
      <trkpt lat="35.822840" lon="-111.440270">
        <ele>1374.615</ele>
        <time>2018-12-28T07:57:09Z</time>
      </trkpt>
      <trkpt lat="35.821970" lon="-111.440480">
        <ele>1376.008</ele>
        <time>2018-12-28T07:57:29Z</time>
      </trkpt>
      <trkpt lat="35.821860" lon="-111.440510">
        <ele>1376.287</ele>
        <time>2018-12-28T07:57:49Z</time>
      </trkpt>
      <trkpt lat="35.821810" lon="-111.440500">
        <ele>1376.235</ele>
        <time>2018-12-28T07:58:09Z</time>
      </trkpt>
      <trkpt lat="35.821000" lon="-111.440710">
        <ele>1376.440</ele>
        <time>2018-12-28T07:58:29Z</time>
      </trkpt>
      <trkpt lat="35.820440" lon="-111.440860">
        <ele>1376.961</ele>
        <time>2018-12-28T07:58:49Z</time>
      </trkpt>
      <trkpt lat="35.819260" lon="-111.441170">
        <ele>1377.486</ele>
        <time>2018-12-28T07:59:09Z</time>
      </trkpt>
      <trkpt lat="35.818840" lon="-111.441270">
        <ele>1377.674</ele>
        <time>2018-12-28T07:59:29Z</time>
      </trkpt>
      <trkpt lat="35.816740" lon="-111.441810">
        <ele>1379.126</ele>
        <time>2018-12-28T07:59:49Z</time>
      </trkpt>
      <trkpt lat="35.816450" lon="-111.441880">
        <ele>1379.815</ele>
        <time>2018-12-28T08:00:09Z</time>
      </trkpt>
      <trkpt lat="35.816150" lon="-111.441950">
        <ele>1380.511</ele>
        <time>2018-12-28T08:00:29Z</time>
      </trkpt>
      <trkpt lat="35.815040" lon="-111.442250">
        <ele>1384.221</ele>
        <time>2018-12-28T08:00:49Z</time>
      </trkpt>
      <trkpt lat="35.814290" lon="-111.442440">
        <ele>1386.703</ele>
        <time>2018-12-28T08:01:09Z</time>
      </trkpt>
      <trkpt lat="35.813660" lon="-111.442610">
        <ele>1389.408</ele>
        <time>2018-12-28T08:01:29Z</time>
      </trkpt>
      <trkpt lat="35.812520" lon="-111.442940">
        <ele>1390.524</ele>
        <time>2018-12-28T08:01:49Z</time>
      </trkpt>
      <trkpt lat="35.812200" lon="-111.443040">
        <ele>1390.872</ele>
        <time>2018-12-28T08:02:09Z</time>
      </trkpt>
      <trkpt lat="35.811100" lon="-111.443380">
        <ele>1391.447</ele>
        <time>2018-12-28T08:02:29Z</time>
      </trkpt>
      <trkpt lat="35.810810" lon="-111.443470">
        <ele>1391.948</ele>
        <time>2018-12-28T08:02:49Z</time>
      </trkpt>
      <trkpt lat="35.810020" lon="-111.443710">
        <ele>1393.093</ele>
        <time>2018-12-28T08:03:09Z</time>
      </trkpt>
      <trkpt lat="35.809170" lon="-111.443970">
        <ele>1393.361</ele>
        <time>2018-12-28T08:03:29Z</time>
      </trkpt>
      <trkpt lat="35.808590" lon="-111.444140">
        <ele>1393.753</ele>
        <time>2018-12-28T08:03:49Z</time>
      </trkpt>
      <trkpt lat="35.808020" lon="-111.444310">
        <ele>1393.622</ele>
        <time>2018-12-28T08:04:09Z</time>
      </trkpt>
      <trkpt lat="35.807790" lon="-111.444390">
        <ele>1393.472</ele>
        <time>2018-12-28T08:04:29Z</time>
      </trkpt>
      <trkpt lat="35.806770" lon="-111.444690">
        <ele>1390.213</ele>
        <time>2018-12-28T08:04:49Z</time>
      </trkpt>
      <trkpt lat="35.806370" lon="-111.444810">
        <ele>1389.914</ele>
        <time>2018-12-28T08:05:09Z</time>
      </trkpt>
      <trkpt lat="35.805940" lon="-111.444940">
        <ele>1389.208</ele>
        <time>2018-12-28T08:05:29Z</time>
      </trkpt>
      <trkpt lat="35.805310" lon="-111.445130">
        <ele>1388.540</ele>
        <time>2018-12-28T08:05:49Z</time>
      </trkpt>
      <trkpt lat="35.804050" lon="-111.445510">
        <ele>1388.518</ele>
        <time>2018-12-28T08:06:09Z</time>
      </trkpt>
      <trkpt lat="35.803580" lon="-111.445650">
        <ele>1388.953</ele>
        <time>2018-12-28T08:06:29Z</time>
      </trkpt>
      <trkpt lat="35.802650" lon="-111.445930">
        <ele>1389.554</ele>
        <time>2018-12-28T08:06:49Z</time>
      </trkpt>
      <trkpt lat="35.800270" lon="-111.446630">
        <ele>1390.919</ele>
        <time>2018-12-28T08:07:09Z</time>
      </trkpt>
      <trkpt lat="35.799970" lon="-111.446730">
        <ele>1391.697</ele>
        <time>2018-12-28T08:07:29Z</time>
      </trkpt>
      <trkpt lat="35.799350" lon="-111.446920">
        <ele>1392.819</ele>
        <time>2018-12-28T08:07:49Z</time>
      </trkpt>
      <trkpt lat="35.798150" lon="-111.447300">
        <ele>1392.038</ele>
        <time>2018-12-28T08:08:09Z</time>
      </trkpt>
      <trkpt lat="35.797860" lon="-111.447390">
        <ele>1391.012</ele>
        <time>2018-12-28T08:08:29Z</time>
      </trkpt>
      <trkpt lat="35.797450" lon="-111.447520">
        <ele>1390.532</ele>
        <time>2018-12-28T08:08:49Z</time>
      </trkpt>
      <trkpt lat="35.796990" lon="-111.447650">
        <ele>1390.105</ele>
        <time>2018-12-28T08:09:09Z</time>
      </trkpt>
      <trkpt lat="35.796570" lon="-111.447770">
        <ele>1389.508</ele>
        <time>2018-12-28T08:09:29Z</time>
      </trkpt>
      <trkpt lat="35.796080" lon="-111.447900">
        <ele>1388.644</ele>
        <time>2018-12-28T08:09:49Z</time>
      </trkpt>
      <trkpt lat="35.795710" lon="-111.448010">
        <ele>1388.142</ele>
        <time>2018-12-28T08:10:09Z</time>
      </trkpt>
      <trkpt lat="35.795000" lon="-111.448200">
        <ele>1386.417</ele>
        <time>2018-12-28T08:10:29Z</time>
      </trkpt>
      <trkpt lat="35.794310" lon="-111.448400">
        <ele>1385.428</ele>
        <time>2018-12-28T08:10:49Z</time>
      </trkpt>
      <trkpt lat="35.793780" lon="-111.448580">
        <ele>1385.723</ele>
        <time>2018-12-28T08:11:09Z</time>
      </trkpt>
      <trkpt lat="35.793370" lon="-111.448720">
        <ele>1386.281</ele>
        <time>2018-12-28T08:11:29Z</time>
      </trkpt>
      <trkpt lat="35.792810" lon="-111.448930">
        <ele>1386.613</ele>
        <time>2018-12-28T08:11:49Z</time>
      </trkpt>
      <trkpt lat="35.792290" lon="-111.449140">
        <ele>1384.172</ele>
        <time>2018-12-28T08:12:09Z</time>
      </trkpt>
      <trkpt lat="35.791800" lon="-111.449330">
        <ele>1381.331</ele>
        <time>2018-12-28T08:12:29Z</time>
      </trkpt>
      <trkpt lat="35.791170" lon="-111.449600">
        <ele>1378.061</ele>
        <time>2018-12-28T08:12:49Z</time>
      </trkpt>
      <trkpt lat="35.790510" lon="-111.449900">
        <ele>1377.307</ele>
        <time>2018-12-28T08:13:09Z</time>
      </trkpt>
      <trkpt lat="35.789970" lon="-111.450160">
        <ele>1377.308</ele>
        <time>2018-12-28T08:13:29Z</time>
      </trkpt>
      <trkpt lat="35.788900" lon="-111.450720">
        <ele>1369.466</ele>
        <time>2018-12-28T08:13:49Z</time>
      </trkpt>
      <trkpt lat="35.788190" lon="-111.451140">
        <ele>1372.454</ele>
        <time>2018-12-28T08:14:09Z</time>
      </trkpt>
      <trkpt lat="35.787610" lon="-111.451500">
        <ele>1376.449</ele>
        <time>2018-12-28T08:14:29Z</time>
      </trkpt>
      <trkpt lat="35.787190" lon="-111.451760">
        <ele>1377.110</ele>
        <time>2018-12-28T08:14:49Z</time>
      </trkpt>
      <trkpt lat="35.786660" lon="-111.452100">
        <ele>1378.445</ele>
        <time>2018-12-28T08:15:09Z</time>
      </trkpt>
      <trkpt lat="35.785770" lon="-111.452740">
        <ele>1378.633</ele>
        <time>2018-12-28T08:15:29Z</time>
      </trkpt>
      <trkpt lat="35.785170" lon="-111.453180">
        <ele>1378.875</ele>
        <time>2018-12-28T08:15:49Z</time>
      </trkpt>
      <trkpt lat="35.784600" lon="-111.453630">
        <ele>1380.454</ele>
        <time>2018-12-28T08:16:09Z</time>
      </trkpt>
      <trkpt lat="35.784090" lon="-111.454050">
        <ele>1383.038</ele>
        <time>2018-12-28T08:16:29Z</time>
      </trkpt>
      <trkpt lat="35.783510" lon="-111.454550">
        <ele>1385.570</ele>
        <time>2018-12-28T08:16:49Z</time>
      </trkpt>
      <trkpt lat="35.782900" lon="-111.455100">
        <ele>1388.917</ele>
        <time>2018-12-28T08:17:09Z</time>
      </trkpt>
      <trkpt lat="35.781280" lon="-111.456600">
        <ele>1392.508</ele>
        <time>2018-12-28T08:17:29Z</time>
      </trkpt>
      <trkpt lat="35.780700" lon="-111.457130">
        <ele>1394.266</ele>
        <time>2018-12-28T08:17:49Z</time>
      </trkpt>
      <trkpt lat="35.780330" lon="-111.457470">
        <ele>1394.974</ele>
        <time>2018-12-28T08:18:09Z</time>
      </trkpt>
      <trkpt lat="35.779760" lon="-111.457990">
        <ele>1395.039</ele>
        <time>2018-12-28T08:18:29Z</time>
      </trkpt>
      <trkpt lat="35.778870" lon="-111.458740">
        <ele>1399.450</ele>
        <time>2018-12-28T08:18:49Z</time>
      </trkpt>
      <trkpt lat="35.778260" lon="-111.459220">
        <ele>1401.765</ele>
        <time>2018-12-28T08:19:09Z</time>
      </trkpt>
      <trkpt lat="35.777940" lon="-111.459470">
        <ele>1401.893</ele>
        <time>2018-12-28T08:19:29Z</time>
      </trkpt>
      <trkpt lat="35.777690" lon="-111.459640">
        <ele>1401.495</ele>
        <time>2018-12-28T08:19:49Z</time>
      </trkpt>
      <trkpt lat="35.777420" lon="-111.459850">
        <ele>1401.564</ele>
        <time>2018-12-28T08:20:09Z</time>
      </trkpt>
      <trkpt lat="35.776670" lon="-111.460370">
        <ele>1403.117</ele>
        <time>2018-12-28T08:20:29Z</time>
      </trkpt>
      <trkpt lat="35.775920" lon="-111.460870">
        <ele>1409.387</ele>
        <time>2018-12-28T08:20:49Z</time>
      </trkpt>
      <trkpt lat="35.775470" lon="-111.461150">
        <ele>1411.715</ele>
        <time>2018-12-28T08:21:09Z</time>
      </trkpt>
      <trkpt lat="35.775210" lon="-111.461310">
        <ele>1412.608</ele>
        <time>2018-12-28T08:21:29Z</time>
      </trkpt>
      <trkpt lat="35.774990" lon="-111.461440">
        <ele>1413.444</ele>
        <time>2018-12-28T08:21:49Z</time>
      </trkpt>
      <trkpt lat="35.774080" lon="-111.461950">
        <ele>1416.342</ele>
        <time>2018-12-28T08:22:09Z</time>
      </trkpt>
      <trkpt lat="35.773550" lon="-111.462230">
        <ele>1416.637</ele>
        <time>2018-12-28T08:22:29Z</time>
      </trkpt>
      <trkpt lat="35.773250" lon="-111.462390">
        <ele>1419.038</ele>
        <time>2018-12-28T08:22:49Z</time>
      </trkpt>
      <trkpt lat="35.772590" lon="-111.462710">
        <ele>1424.613</ele>
        <time>2018-12-28T08:23:09Z</time>
      </trkpt>
      <trkpt lat="35.772220" lon="-111.462870">
        <ele>1426.561</ele>
        <time>2018-12-28T08:23:29Z</time>
      </trkpt>
      <trkpt lat="35.771920" lon="-111.463010">
        <ele>1427.393</ele>
        <time>2018-12-28T08:23:49Z</time>
      </trkpt>
      <trkpt lat="35.771520" lon="-111.463180">
        <ele>1428.112</ele>
        <time>2018-12-28T08:24:09Z</time>
      </trkpt>
      <trkpt lat="35.770950" lon="-111.463410">
        <ele>1431.925</ele>
        <time>2018-12-28T08:24:29Z</time>
      </trkpt>
      <trkpt lat="35.770430" lon="-111.463600">
        <ele>1435.426</ele>
        <time>2018-12-28T08:24:49Z</time>
      </trkpt>
      <trkpt lat="35.769590" lon="-111.463890">
        <ele>1440.108</ele>
        <time>2018-12-28T08:25:09Z</time>
      </trkpt>
      <trkpt lat="35.768750" lon="-111.464180">
        <ele>1444.008</ele>
        <time>2018-12-28T08:25:29Z</time>
      </trkpt>
      <trkpt lat="35.767390" lon="-111.464630">
        <ele>1451.815</ele>
        <time>2018-12-28T08:25:49Z</time>
      </trkpt>
      <trkpt lat="35.766040" lon="-111.465080">
        <ele>1461.823</ele>
        <time>2018-12-28T08:26:09Z</time>
      </trkpt>
      <trkpt lat="35.765240" lon="-111.465350">
        <ele>1465.728</ele>
        <time>2018-12-28T08:26:29Z</time>
      </trkpt>
      <trkpt lat="35.764130" lon="-111.465720">
        <ele>1473.339</ele>
        <time>2018-12-28T08:26:49Z</time>
      </trkpt>
      <trkpt lat="35.762750" lon="-111.466180">
        <ele>1481.354</ele>
        <time>2018-12-28T08:27:09Z</time>
      </trkpt>
      <trkpt lat="35.761280" lon="-111.466680">
        <ele>1489.272</ele>
        <time>2018-12-28T08:27:29Z</time>
      </trkpt>
      <trkpt lat="35.760550" lon="-111.466930">
        <ele>1492.324</ele>
        <time>2018-12-28T08:27:49Z</time>
      </trkpt>
      <trkpt lat="35.759810" lon="-111.467190">
        <ele>1495.783</ele>
        <time>2018-12-28T08:28:09Z</time>
      </trkpt>
      <trkpt lat="35.759410" lon="-111.467340">
        <ele>1497.418</ele>
        <time>2018-12-28T08:28:29Z</time>
      </trkpt>
      <trkpt lat="35.759120" lon="-111.467450">
        <ele>1499.098</ele>
        <time>2018-12-28T08:28:49Z</time>
      </trkpt>
      <trkpt lat="35.758810" lon="-111.467580">
        <ele>1500.417</ele>
        <time>2018-12-28T08:29:09Z</time>
      </trkpt>
      <trkpt lat="35.757360" lon="-111.468230">
        <ele>1505.008</ele>
        <time>2018-12-28T08:29:29Z</time>
      </trkpt>
      <trkpt lat="35.757190" lon="-111.468310">
        <ele>1506.084</ele>
        <time>2018-12-28T08:29:49Z</time>
      </trkpt>
      <trkpt lat="35.754260" lon="-111.469650">
        <ele>1516.982</ele>
        <time>2018-12-28T08:30:09Z</time>
      </trkpt>
      <trkpt lat="35.754210" lon="-111.469710">
        <ele>1517.047</ele>
        <time>2018-12-28T08:30:29Z</time>
      </trkpt>
      <trkpt lat="35.753940" lon="-111.469840">
        <ele>1517.858</ele>
        <time>2018-12-28T08:30:49Z</time>
      </trkpt>
      <trkpt lat="35.753130" lon="-111.470200">
        <ele>1520.323</ele>
        <time>2018-12-28T08:31:09Z</time>
      </trkpt>
      <trkpt lat="35.752110" lon="-111.470660">
        <ele>1523.931</ele>
        <time>2018-12-28T08:31:29Z</time>
      </trkpt>
      <trkpt lat="35.751830" lon="-111.470810">
        <ele>1524.753</ele>
        <time>2018-12-28T08:31:49Z</time>
      </trkpt>
      <trkpt lat="35.751110" lon="-111.471130">
        <ele>1525.422</ele>
        <time>2018-12-28T08:32:09Z</time>
      </trkpt>
      <trkpt lat="35.751100" lon="-111.471130">
        <ele>1525.499</ele>
        <time>2018-12-28T08:32:29Z</time>
      </trkpt>
      <trkpt lat="35.751070" lon="-111.471120">
        <ele>1525.507</ele>
        <time>2018-12-28T08:32:49Z</time>
      </trkpt>
      <trkpt lat="35.750910" lon="-111.471200">
        <ele>1525.527</ele>
        <time>2018-12-28T08:33:09Z</time>
      </trkpt>
      <trkpt lat="35.749870" lon="-111.471660">
        <ele>1526.608</ele>
        <time>2018-12-28T08:33:29Z</time>
      </trkpt>
      <trkpt lat="35.749430" lon="-111.471850">
        <ele>1528.132</ele>
        <time>2018-12-28T08:33:49Z</time>
      </trkpt>
      <trkpt lat="35.748770" lon="-111.472160">
        <ele>1529.480</ele>
        <time>2018-12-28T08:34:09Z</time>
      </trkpt>
      <trkpt lat="35.747620" lon="-111.472680">
        <ele>1531.185</ele>
        <time>2018-12-28T08:34:29Z</time>
      </trkpt>
      <trkpt lat="35.747470" lon="-111.472740">
        <ele>1531.416</ele>
        <time>2018-12-28T08:34:49Z</time>
      </trkpt>
      <trkpt lat="35.746410" lon="-111.473220">
        <ele>1532.991</ele>
        <time>2018-12-28T08:35:09Z</time>
      </trkpt>
      <trkpt lat="35.745690" lon="-111.473550">
        <ele>1533.499</ele>
        <time>2018-12-28T08:35:29Z</time>
      </trkpt>
      <trkpt lat="35.745420" lon="-111.473670">
        <ele>1533.551</ele>
        <time>2018-12-28T08:35:49Z</time>
      </trkpt>
      <trkpt lat="35.745290" lon="-111.473720">
        <ele>1533.630</ele>
        <time>2018-12-28T08:36:09Z</time>
      </trkpt>
      <trkpt lat="35.744760" lon="-111.473960">
        <ele>1533.937</ele>
        <time>2018-12-28T08:36:29Z</time>
      </trkpt>
      <trkpt lat="35.744030" lon="-111.474290">
        <ele>1534.449</ele>
        <time>2018-12-28T08:36:49Z</time>
      </trkpt>
      <trkpt lat="35.742230" lon="-111.475110">
        <ele>1536.213</ele>
        <time>2018-12-28T08:37:09Z</time>
      </trkpt>
      <trkpt lat="35.741730" lon="-111.475350">
        <ele>1536.508</ele>
        <time>2018-12-28T08:37:29Z</time>
      </trkpt>
      <trkpt lat="35.740780" lon="-111.475790">
        <ele>1537.076</ele>
        <time>2018-12-28T08:37:49Z</time>
      </trkpt>
      <trkpt lat="35.740630" lon="-111.475860">
        <ele>1537.184</ele>
        <time>2018-12-28T08:38:09Z</time>
      </trkpt>
      <trkpt lat="35.740170" lon="-111.476070">
        <ele>1537.429</ele>
        <time>2018-12-28T08:38:29Z</time>
      </trkpt>
      <trkpt lat="35.740000" lon="-111.476150">
        <ele>1537.590</ele>
        <time>2018-12-28T08:38:49Z</time>
      </trkpt>
      <trkpt lat="35.739630" lon="-111.476320">
        <ele>1537.745</ele>
        <time>2018-12-28T08:39:09Z</time>
      </trkpt>
      <trkpt lat="35.739090" lon="-111.476580">
        <ele>1537.943</ele>
        <time>2018-12-28T08:39:29Z</time>
      </trkpt>
      <trkpt lat="35.736600" lon="-111.477720">
        <ele>1538.485</ele>
        <time>2018-12-28T08:39:49Z</time>
      </trkpt>
      <trkpt lat="35.735370" lon="-111.478270">
        <ele>1537.714</ele>
        <time>2018-12-28T08:40:09Z</time>
      </trkpt>
      <trkpt lat="35.734740" lon="-111.478560">
        <ele>1537.154</ele>
        <time>2018-12-28T08:40:29Z</time>
      </trkpt>
      <trkpt lat="35.733720" lon="-111.479030">
        <ele>1538.656</ele>
        <time>2018-12-28T08:40:49Z</time>
      </trkpt>
      <trkpt lat="35.732900" lon="-111.479410">
        <ele>1541.211</ele>
        <time>2018-12-28T08:41:09Z</time>
      </trkpt>
      <trkpt lat="35.731820" lon="-111.479910">
        <ele>1543.208</ele>
        <time>2018-12-28T08:41:29Z</time>
      </trkpt>
      <trkpt lat="35.731220" lon="-111.480170">
        <ele>1543.278</ele>
        <time>2018-12-28T08:41:49Z</time>
      </trkpt>
      <trkpt lat="35.730900" lon="-111.480320">
        <ele>1543.446</ele>
        <time>2018-12-28T08:42:09Z</time>
      </trkpt>
      <trkpt lat="35.729370" lon="-111.481020">
        <ele>1545.561</ele>
        <time>2018-12-28T08:42:29Z</time>
      </trkpt>
      <trkpt lat="35.727340" lon="-111.481950">
        <ele>1543.882</ele>
        <time>2018-12-28T08:42:49Z</time>
      </trkpt>
      <trkpt lat="35.726700" lon="-111.482240">
        <ele>1542.487</ele>
        <time>2018-12-28T08:43:09Z</time>
      </trkpt>
      <trkpt lat="35.725660" lon="-111.482700">
        <ele>1540.155</ele>
        <time>2018-12-28T08:43:29Z</time>
      </trkpt>
      <trkpt lat="35.725300" lon="-111.482870">
        <ele>1540.167</ele>
        <time>2018-12-28T08:43:49Z</time>
      </trkpt>
      <trkpt lat="35.724700" lon="-111.483150">
        <ele>1540.666</ele>
        <time>2018-12-28T08:44:09Z</time>
      </trkpt>
      <trkpt lat="35.723640" lon="-111.483630">
        <ele>1543.265</ele>
        <time>2018-12-28T08:44:29Z</time>
      </trkpt>
      <trkpt lat="35.723350" lon="-111.483770">
        <ele>1543.768</ele>
        <time>2018-12-28T08:44:49Z</time>
      </trkpt>
      <trkpt lat="35.723050" lon="-111.483900">
        <ele>1545.014</ele>
        <time>2018-12-28T08:45:09Z</time>
      </trkpt>
      <trkpt lat="35.722690" lon="-111.484070">
        <ele>1546.108</ele>
        <time>2018-12-28T08:45:29Z</time>
      </trkpt>
      <trkpt lat="35.722130" lon="-111.484350">
        <ele>1547.019</ele>
        <time>2018-12-28T08:45:49Z</time>
      </trkpt>
      <trkpt lat="35.721630" lon="-111.484610">
        <ele>1548.857</ele>
        <time>2018-12-28T08:46:09Z</time>
      </trkpt>
      <trkpt lat="35.720930" lon="-111.484990">
        <ele>1549.322</ele>
        <time>2018-12-28T08:46:29Z</time>
      </trkpt>
      <trkpt lat="35.720550" lon="-111.485200">
        <ele>1550.093</ele>
        <time>2018-12-28T08:46:49Z</time>
      </trkpt>
      <trkpt lat="35.719900" lon="-111.485600">
        <ele>1552.388</ele>
        <time>2018-12-28T08:47:09Z</time>
      </trkpt>
      <trkpt lat="35.719510" lon="-111.485850">
        <ele>1553.936</ele>
        <time>2018-12-28T08:47:29Z</time>
      </trkpt>
      <trkpt lat="35.718850" lon="-111.486280">
        <ele>1551.958</ele>
        <time>2018-12-28T08:47:49Z</time>
      </trkpt>
      <trkpt lat="35.718320" lon="-111.486640">
        <ele>1552.397</ele>
        <time>2018-12-28T08:48:09Z</time>
      </trkpt>
      <trkpt lat="35.717820" lon="-111.486980">
        <ele>1552.649</ele>
        <time>2018-12-28T08:48:29Z</time>
      </trkpt>
      <trkpt lat="35.717550" lon="-111.487150">
        <ele>1553.002</ele>
        <time>2018-12-28T08:48:49Z</time>
      </trkpt>
      <trkpt lat="35.717330" lon="-111.487300">
        <ele>1553.222</ele>
        <time>2018-12-28T08:49:09Z</time>
      </trkpt>
      <trkpt lat="35.717140" lon="-111.487440">
        <ele>1553.608</ele>
        <time>2018-12-28T08:49:29Z</time>
      </trkpt>
      <trkpt lat="35.716990" lon="-111.487550">
        <ele>1553.847</ele>
        <time>2018-12-28T08:49:49Z</time>
      </trkpt>
      <trkpt lat="35.716960" lon="-111.487560">
        <ele>1553.885</ele>
        <time>2018-12-28T08:50:09Z</time>
      </trkpt>
      <trkpt lat="35.716300" lon="-111.488020">
        <ele>1554.210</ele>
        <time>2018-12-28T08:50:29Z</time>
      </trkpt>
      <trkpt lat="35.715930" lon="-111.488290">
        <ele>1554.531</ele>
        <time>2018-12-28T08:50:49Z</time>
      </trkpt>
      <trkpt lat="35.715260" lon="-111.488770">
        <ele>1555.186</ele>
        <time>2018-12-28T08:51:09Z</time>
      </trkpt>
      <trkpt lat="35.715100" lon="-111.488880">
        <ele>1555.284</ele>
        <time>2018-12-28T08:51:29Z</time>
      </trkpt>
      <trkpt lat="35.714920" lon="-111.489010">
        <ele>1555.166</ele>
        <time>2018-12-28T08:51:49Z</time>
      </trkpt>
      <trkpt lat="35.712580" lon="-111.490640">
        <ele>1556.135</ele>
        <time>2018-12-28T08:52:09Z</time>
      </trkpt>
      <trkpt lat="35.711930" lon="-111.491090">
        <ele>1556.156</ele>
        <time>2018-12-28T08:52:29Z</time>
      </trkpt>
      <trkpt lat="35.711380" lon="-111.491470">
        <ele>1555.959</ele>
        <time>2018-12-28T08:52:49Z</time>
      </trkpt>
      <trkpt lat="35.710760" lon="-111.491910">
        <ele>1555.414</ele>
        <time>2018-12-28T08:53:09Z</time>
      </trkpt>
      <trkpt lat="35.710370" lon="-111.492180">
        <ele>1555.408</ele>
        <time>2018-12-28T08:53:29Z</time>
      </trkpt>
      <trkpt lat="35.709800" lon="-111.492580">
        <ele>1555.428</ele>
        <time>2018-12-28T08:53:49Z</time>
      </trkpt>
      <trkpt lat="35.709090" lon="-111.493070">
        <ele>1555.316</ele>
        <time>2018-12-28T08:54:09Z</time>
      </trkpt>
      <trkpt lat="35.708160" lon="-111.493720">
        <ele>1555.491</ele>
        <time>2018-12-28T08:54:29Z</time>
      </trkpt>
      <trkpt lat="35.707760" lon="-111.493990">
        <ele>1556.762</ele>
        <time>2018-12-28T08:54:49Z</time>
      </trkpt>
      <trkpt lat="35.707500" lon="-111.494170">
        <ele>1556.947</ele>
        <time>2018-12-28T08:55:09Z</time>
      </trkpt>
      <trkpt lat="35.706890" lon="-111.494590">
        <ele>1554.145</ele>
        <time>2018-12-28T08:55:29Z</time>
      </trkpt>
      <trkpt lat="35.706280" lon="-111.495010">
        <ele>1553.477</ele>
        <time>2018-12-28T08:55:49Z</time>
      </trkpt>
      <trkpt lat="35.705760" lon="-111.495370">
        <ele>1553.766</ele>
        <time>2018-12-28T08:56:09Z</time>
      </trkpt>
      <trkpt lat="35.705190" lon="-111.495770">
        <ele>1555.242</ele>
        <time>2018-12-28T08:56:29Z</time>
      </trkpt>
      <trkpt lat="35.704990" lon="-111.495910">
        <ele>1556.322</ele>
        <time>2018-12-28T08:56:49Z</time>
      </trkpt>
      <trkpt lat="35.704770" lon="-111.496060">
        <ele>1557.914</ele>
        <time>2018-12-28T08:57:09Z</time>
      </trkpt>
      <trkpt lat="35.704380" lon="-111.496330">
        <ele>1560.708</ele>
        <time>2018-12-28T08:57:29Z</time>
      </trkpt>
      <trkpt lat="35.704030" lon="-111.496560">
        <ele>1562.367</ele>
        <time>2018-12-28T08:57:49Z</time>
      </trkpt>
      <trkpt lat="35.703420" lon="-111.496950">
        <ele>1567.145</ele>
        <time>2018-12-28T08:58:09Z</time>
      </trkpt>
      <trkpt lat="35.703040" lon="-111.497180">
        <ele>1568.210</ele>
        <time>2018-12-28T08:58:29Z</time>
      </trkpt>
      <trkpt lat="35.702640" lon="-111.497430">
        <ele>1571.261</ele>
        <time>2018-12-28T08:58:49Z</time>
      </trkpt>
      <trkpt lat="35.702030" lon="-111.497790">
        <ele>1572.196</ele>
        <time>2018-12-28T08:59:09Z</time>
      </trkpt>
      <trkpt lat="35.701660" lon="-111.498010">
        <ele>1572.474</ele>
        <time>2018-12-28T08:59:29Z</time>
      </trkpt>
      <trkpt lat="35.699360" lon="-111.499380">
        <ele>1575.056</ele>
        <time>2018-12-28T08:59:49Z</time>
      </trkpt>
      <trkpt lat="35.699200" lon="-111.499480">
        <ele>1575.055</ele>
        <time>2018-12-28T09:00:09Z</time>
      </trkpt>
      <trkpt lat="35.698300" lon="-111.500010">
        <ele>1575.782</ele>
        <time>2018-12-28T09:00:29Z</time>
      </trkpt>
      <trkpt lat="35.697990" lon="-111.500200">
        <ele>1576.943</ele>
        <time>2018-12-28T09:00:49Z</time>
      </trkpt>
      <trkpt lat="35.697800" lon="-111.500310">
        <ele>1577.317</ele>
        <time>2018-12-28T09:01:09Z</time>
      </trkpt>
      <trkpt lat="35.697310" lon="-111.500600">
        <ele>1577.708</ele>
        <time>2018-12-28T09:01:29Z</time>
      </trkpt>
      <trkpt lat="35.696830" lon="-111.500890">
        <ele>1578.381</ele>
        <time>2018-12-28T09:01:49Z</time>
      </trkpt>
      <trkpt lat="35.696320" lon="-111.501200">
        <ele>1578.649</ele>
        <time>2018-12-28T09:02:09Z</time>
      </trkpt>
      <trkpt lat="35.695830" lon="-111.501490">
        <ele>1578.814</ele>
        <time>2018-12-28T09:02:29Z</time>
      </trkpt>
      <trkpt lat="35.695540" lon="-111.501660">
        <ele>1578.915</ele>
        <time>2018-12-28T09:02:49Z</time>
      </trkpt>
      <trkpt lat="35.695340" lon="-111.501780">
        <ele>1578.830</ele>
        <time>2018-12-28T09:03:09Z</time>
      </trkpt>
      <trkpt lat="35.695050" lon="-111.501950">
        <ele>1579.088</ele>
        <time>2018-12-28T09:03:29Z</time>
      </trkpt>
      <trkpt lat="35.694750" lon="-111.502140">
        <ele>1579.490</ele>
        <time>2018-12-28T09:03:49Z</time>
      </trkpt>
      <trkpt lat="35.694360" lon="-111.502370">
        <ele>1580.669</ele>
        <time>2018-12-28T09:04:09Z</time>
      </trkpt>
      <trkpt lat="35.693950" lon="-111.502610">
        <ele>1580.624</ele>
        <time>2018-12-28T09:04:29Z</time>
      </trkpt>
      <trkpt lat="35.693560" lon="-111.502850">
        <ele>1580.304</ele>
        <time>2018-12-28T09:04:49Z</time>
      </trkpt>
      <trkpt lat="35.693510" lon="-111.502880">
        <ele>1580.314</ele>
        <time>2018-12-28T09:05:09Z</time>
      </trkpt>
      <trkpt lat="35.693260" lon="-111.503030">
        <ele>1580.108</ele>
        <time>2018-12-28T09:05:29Z</time>
      </trkpt>
      <trkpt lat="35.693160" lon="-111.503090">
        <ele>1580.135</ele>
        <time>2018-12-28T09:05:49Z</time>
      </trkpt>
      <trkpt lat="35.693050" lon="-111.503150">
        <ele>1580.283</ele>
        <time>2018-12-28T09:06:09Z</time>
      </trkpt>
      <trkpt lat="35.692870" lon="-111.503260">
        <ele>1580.288</ele>
        <time>2018-12-28T09:06:29Z</time>
      </trkpt>
      <trkpt lat="35.692490" lon="-111.503490">
        <ele>1580.739</ele>
        <time>2018-12-28T09:06:49Z</time>
      </trkpt>
      <trkpt lat="35.692210" lon="-111.503650">
        <ele>1581.484</ele>
        <time>2018-12-28T09:07:09Z</time>
      </trkpt>
      <trkpt lat="35.691890" lon="-111.503820">
        <ele>1581.972</ele>
        <time>2018-12-28T09:07:29Z</time>
      </trkpt>
      <trkpt lat="35.691650" lon="-111.503940">
        <ele>1582.194</ele>
        <time>2018-12-28T09:07:49Z</time>
      </trkpt>
      <trkpt lat="35.691550" lon="-111.503980">
        <ele>1582.363</ele>
        <time>2018-12-28T09:08:09Z</time>
      </trkpt>
      <trkpt lat="35.691420" lon="-111.504040">
        <ele>1582.435</ele>
        <time>2018-12-28T09:08:29Z</time>
      </trkpt>
      <trkpt lat="35.691070" lon="-111.504200">
        <ele>1582.886</ele>
        <time>2018-12-28T09:08:49Z</time>
      </trkpt>
      <trkpt lat="35.690790" lon="-111.504320">
        <ele>1583.214</ele>
        <time>2018-12-28T09:09:09Z</time>
      </trkpt>
      <trkpt lat="35.690550" lon="-111.504420">
        <ele>1583.408</ele>
        <time>2018-12-28T09:09:29Z</time>
      </trkpt>
      <trkpt lat="35.690370" lon="-111.504490">
        <ele>1583.626</ele>
        <time>2018-12-28T09:09:49Z</time>
      </trkpt>
      <trkpt lat="35.690020" lon="-111.504610">
        <ele>1584.044</ele>
        <time>2018-12-28T09:10:09Z</time>
      </trkpt>
      <trkpt lat="35.689750" lon="-111.504700">
        <ele>1584.259</ele>
        <time>2018-12-28T09:10:29Z</time>
      </trkpt>
      <trkpt lat="35.689290" lon="-111.504840">
        <ele>1584.550</ele>
        <time>2018-12-28T09:10:49Z</time>
      </trkpt>
      <trkpt lat="35.689050" lon="-111.504910">
        <ele>1584.715</ele>
        <time>2018-12-28T09:11:09Z</time>
      </trkpt>
      <trkpt lat="35.688770" lon="-111.504990">
        <ele>1584.963</ele>
        <time>2018-12-28T09:11:29Z</time>
      </trkpt>
      <trkpt lat="35.688490" lon="-111.505070">
        <ele>1585.195</ele>
        <time>2018-12-28T09:11:49Z</time>
      </trkpt>
      <trkpt lat="35.688230" lon="-111.505140">
        <ele>1585.234</ele>
        <time>2018-12-28T09:12:09Z</time>
      </trkpt>
      <trkpt lat="35.687830" lon="-111.505260">
        <ele>1585.484</ele>
        <time>2018-12-28T09:12:29Z</time>
      </trkpt>
      <trkpt lat="35.687540" lon="-111.505340">
        <ele>1585.407</ele>
        <time>2018-12-28T09:12:49Z</time>
      </trkpt>
      <trkpt lat="35.687170" lon="-111.505450">
        <ele>1585.117</ele>
        <time>2018-12-28T09:13:09Z</time>
      </trkpt>
      <trkpt lat="35.686670" lon="-111.505590">
        <ele>1584.608</ele>
        <time>2018-12-28T09:13:29Z</time>
      </trkpt>
      <trkpt lat="35.686390" lon="-111.505680">
        <ele>1584.411</ele>
        <time>2018-12-28T09:13:49Z</time>
      </trkpt>
      <trkpt lat="35.686110" lon="-111.505760">
        <ele>1584.489</ele>
        <time>2018-12-28T09:14:09Z</time>
      </trkpt>
      <trkpt lat="35.685930" lon="-111.505800">
        <ele>1584.454</ele>
        <time>2018-12-28T09:14:29Z</time>
      </trkpt>
      <trkpt lat="35.685450" lon="-111.505950">
        <ele>1584.775</ele>
        <time>2018-12-28T09:14:49Z</time>
      </trkpt>
      <trkpt lat="35.685190" lon="-111.506020">
        <ele>1585.170</ele>
        <time>2018-12-28T09:15:09Z</time>
      </trkpt>
      <trkpt lat="35.684690" lon="-111.506170">
        <ele>1585.818</ele>
        <time>2018-12-28T09:15:29Z</time>
      </trkpt>
      <trkpt lat="35.684330" lon="-111.506270">
        <ele>1585.910</ele>
        <time>2018-12-28T09:15:49Z</time>
      </trkpt>
      <trkpt lat="35.684180" lon="-111.506310">
        <ele>1585.929</ele>
        <time>2018-12-28T09:16:09Z</time>
      </trkpt>
      <trkpt lat="35.683750" lon="-111.506440">
        <ele>1586.211</ele>
        <time>2018-12-28T09:16:29Z</time>
      </trkpt>
      <trkpt lat="35.683200" lon="-111.506600">
        <ele>1586.521</ele>
        <time>2018-12-28T09:16:49Z</time>
      </trkpt>
      <trkpt lat="35.682730" lon="-111.506730">
        <ele>1586.803</ele>
        <time>2018-12-28T09:17:09Z</time>
      </trkpt>
      <trkpt lat="35.682100" lon="-111.506910">
        <ele>1587.208</ele>
        <time>2018-12-28T09:17:29Z</time>
      </trkpt>
      <trkpt lat="35.680970" lon="-111.507230">
        <ele>1587.914</ele>
        <time>2018-12-28T09:17:49Z</time>
      </trkpt>
      <trkpt lat="35.680460" lon="-111.507380">
        <ele>1588.372</ele>
        <time>2018-12-28T09:18:09Z</time>
      </trkpt>
      <trkpt lat="35.679940" lon="-111.507530">
        <ele>1588.767</ele>
        <time>2018-12-28T09:18:29Z</time>
      </trkpt>
      <trkpt lat="35.679840" lon="-111.507560">
        <ele>1588.878</ele>
        <time>2018-12-28T09:18:49Z</time>
      </trkpt>
      <trkpt lat="35.679300" lon="-111.507720">
        <ele>1589.373</ele>
        <time>2018-12-28T09:19:09Z</time>
      </trkpt>
      <trkpt lat="35.678520" lon="-111.507940">
        <ele>1589.971</ele>
        <time>2018-12-28T09:19:29Z</time>
      </trkpt>
      <trkpt lat="35.678330" lon="-111.507990">
        <ele>1590.033</ele>
        <time>2018-12-28T09:19:49Z</time>
      </trkpt>
      <trkpt lat="35.677420" lon="-111.508260">
        <ele>1590.782</ele>
        <time>2018-12-28T09:20:09Z</time>
      </trkpt>
      <trkpt lat="35.676810" lon="-111.508440">
        <ele>1591.174</ele>
        <time>2018-12-28T09:20:29Z</time>
      </trkpt>
      <trkpt lat="35.676490" lon="-111.508520">
        <ele>1591.556</ele>
        <time>2018-12-28T09:20:49Z</time>
      </trkpt>
      <trkpt lat="35.675970" lon="-111.508680">
        <ele>1592.021</ele>
        <time>2018-12-28T09:21:09Z</time>
      </trkpt>
      <trkpt lat="35.675410" lon="-111.508830">
        <ele>1592.008</ele>
        <time>2018-12-28T09:21:29Z</time>
      </trkpt>
      <trkpt lat="35.674730" lon="-111.509030">
        <ele>1592.620</ele>
        <time>2018-12-28T09:21:49Z</time>
      </trkpt>
      <trkpt lat="35.674050" lon="-111.509230">
        <ele>1593.248</ele>
        <time>2018-12-28T09:22:09Z</time>
      </trkpt>
      <trkpt lat="35.671610" lon="-111.509930">
        <ele>1596.093</ele>
        <time>2018-12-28T09:22:29Z</time>
      </trkpt>
      <trkpt lat="35.670320" lon="-111.510300">
        <ele>1597.244</ele>
        <time>2018-12-28T09:22:49Z</time>
      </trkpt>
      <trkpt lat="35.670190" lon="-111.510340">
        <ele>1597.469</ele>
        <time>2018-12-28T09:23:09Z</time>
      </trkpt>
      <trkpt lat="35.669920" lon="-111.510420">
        <ele>1597.677</ele>
        <time>2018-12-28T09:23:29Z</time>
      </trkpt>
      <trkpt lat="35.669240" lon="-111.510610">
        <ele>1598.059</ele>
        <time>2018-12-28T09:23:49Z</time>
      </trkpt>
      <trkpt lat="35.668940" lon="-111.510700">
        <ele>1598.178</ele>
        <time>2018-12-28T09:24:09Z</time>
      </trkpt>
      <trkpt lat="35.668210" lon="-111.510910">
        <ele>1598.048</ele>
        <time>2018-12-28T09:24:29Z</time>
      </trkpt>
      <trkpt lat="35.667280" lon="-111.511180">
        <ele>1598.261</ele>
        <time>2018-12-28T09:24:49Z</time>
      </trkpt>
      <trkpt lat="35.666590" lon="-111.511370">
        <ele>1600.917</ele>
        <time>2018-12-28T09:25:09Z</time>
      </trkpt>
      <trkpt lat="35.665950" lon="-111.511560">
        <ele>1603.008</ele>
        <time>2018-12-28T09:25:29Z</time>
      </trkpt>
      <trkpt lat="35.665640" lon="-111.511650">
        <ele>1603.167</ele>
        <time>2018-12-28T09:25:49Z</time>
      </trkpt>
      <trkpt lat="35.665190" lon="-111.511780">
        <ele>1602.955</ele>
        <time>2018-12-28T09:26:09Z</time>
      </trkpt>
      <trkpt lat="35.664770" lon="-111.511900">
        <ele>1603.070</ele>
        <time>2018-12-28T09:26:29Z</time>
      </trkpt>
      <trkpt lat="35.664280" lon="-111.512040">
        <ele>1603.161</ele>
        <time>2018-12-28T09:26:49Z</time>
      </trkpt>
      <trkpt lat="35.663920" lon="-111.512140">
        <ele>1603.126</ele>
        <time>2018-12-28T09:27:09Z</time>
      </trkpt>
      <trkpt lat="35.663520" lon="-111.512260">
        <ele>1602.934</ele>
        <time>2018-12-28T09:27:29Z</time>
      </trkpt>
      <trkpt lat="35.663180" lon="-111.512350">
        <ele>1602.416</ele>
        <time>2018-12-28T09:27:49Z</time>
      </trkpt>
      <trkpt lat="35.662850" lon="-111.512450">
        <ele>1602.215</ele>
        <time>2018-12-28T09:28:09Z</time>
      </trkpt>
      <trkpt lat="35.662540" lon="-111.512540">
        <ele>1602.297</ele>
        <time>2018-12-28T09:28:29Z</time>
      </trkpt>
      <trkpt lat="35.662160" lon="-111.512650">
        <ele>1602.323</ele>
        <time>2018-12-28T09:28:49Z</time>
      </trkpt>
      <trkpt lat="35.661950" lon="-111.512710">
        <ele>1602.525</ele>
        <time>2018-12-28T09:29:09Z</time>
      </trkpt>
      <trkpt lat="35.661660" lon="-111.512790">
        <ele>1602.708</ele>
        <time>2018-12-28T09:29:29Z</time>
      </trkpt>
      <trkpt lat="35.661330" lon="-111.512890">
        <ele>1603.152</ele>
        <time>2018-12-28T09:29:49Z</time>
      </trkpt>
      <trkpt lat="35.660950" lon="-111.513000">
        <ele>1603.570</ele>
        <time>2018-12-28T09:30:09Z</time>
      </trkpt>
      <trkpt lat="35.660760" lon="-111.513060">
        <ele>1603.755</ele>
        <time>2018-12-28T09:30:29Z</time>
      </trkpt>
      <trkpt lat="35.660340" lon="-111.513180">
        <ele>1604.186</ele>
        <time>2018-12-28T09:30:49Z</time>
      </trkpt>
      <trkpt lat="35.659870" lon="-111.513310">
        <ele>1604.751</ele>
        <time>2018-12-28T09:31:09Z</time>
      </trkpt>
      <trkpt lat="35.659430" lon="-111.513440">
        <ele>1606.169</ele>
        <time>2018-12-28T09:31:29Z</time>
      </trkpt>
      <trkpt lat="35.659120" lon="-111.513530">
        <ele>1607.491</ele>
        <time>2018-12-28T09:31:49Z</time>
      </trkpt>
      <trkpt lat="35.658840" lon="-111.513610">
        <ele>1608.420</ele>
        <time>2018-12-28T09:32:09Z</time>
      </trkpt>
      <trkpt lat="35.658610" lon="-111.513670">
        <ele>1609.025</ele>
        <time>2018-12-28T09:32:29Z</time>
      </trkpt>
      <trkpt lat="35.658460" lon="-111.513720">
        <ele>1609.426</ele>
        <time>2018-12-28T09:32:49Z</time>
      </trkpt>
      <trkpt lat="35.658110" lon="-111.513820">
        <ele>1610.008</ele>
        <time>2018-12-28T09:33:09Z</time>
      </trkpt>
      <trkpt lat="35.658030" lon="-111.513850">
        <ele>1610.208</ele>
        <time>2018-12-28T09:33:29Z</time>
      </trkpt>
      <trkpt lat="35.657750" lon="-111.513920">
        <ele>1611.135</ele>
        <time>2018-12-28T09:33:49Z</time>
      </trkpt>
      <trkpt lat="35.657340" lon="-111.514040">
        <ele>1613.813</ele>
        <time>2018-12-28T09:34:09Z</time>
      </trkpt>
      <trkpt lat="35.657250" lon="-111.514070">
        <ele>1614.398</ele>
        <time>2018-12-28T09:34:29Z</time>
      </trkpt>
      <trkpt lat="35.656940" lon="-111.514160">
        <ele>1615.489</ele>
        <time>2018-12-28T09:34:49Z</time>
      </trkpt>
      <trkpt lat="35.656660" lon="-111.514240">
        <ele>1616.034</ele>
        <time>2018-12-28T09:35:09Z</time>
      </trkpt>
      <trkpt lat="35.655600" lon="-111.514540">
        <ele>1621.192</ele>
        <time>2018-12-28T09:35:29Z</time>
      </trkpt>
      <trkpt lat="35.654810" lon="-111.514770">
        <ele>1620.884</ele>
        <time>2018-12-28T09:35:49Z</time>
      </trkpt>
      <trkpt lat="35.654410" lon="-111.514890">
        <ele>1621.253</ele>
        <time>2018-12-28T09:36:09Z</time>
      </trkpt>
      <trkpt lat="35.654150" lon="-111.514970">
        <ele>1622.464</ele>
        <time>2018-12-28T09:36:29Z</time>
      </trkpt>
      <trkpt lat="35.653980" lon="-111.515020">
        <ele>1623.506</ele>
        <time>2018-12-28T09:36:49Z</time>
      </trkpt>
      <trkpt lat="35.653670" lon="-111.515100">
        <ele>1627.116</ele>
        <time>2018-12-28T09:37:09Z</time>
      </trkpt>
      <trkpt lat="35.652730" lon="-111.515370">
        <ele>1629.408</ele>
        <time>2018-12-28T09:37:29Z</time>
      </trkpt>
      <trkpt lat="35.652060" lon="-111.515560">
        <ele>1633.999</ele>
        <time>2018-12-28T09:37:49Z</time>
      </trkpt>
      <trkpt lat="35.650880" lon="-111.515900">
        <ele>1634.967</ele>
        <time>2018-12-28T09:38:09Z</time>
      </trkpt>
      <trkpt lat="35.650300" lon="-111.516070">
        <ele>1635.062</ele>
        <time>2018-12-28T09:38:29Z</time>
      </trkpt>
      <trkpt lat="35.650060" lon="-111.516140">
        <ele>1635.013</ele>
        <time>2018-12-28T09:38:49Z</time>
      </trkpt>
      <trkpt lat="35.649600" lon="-111.516270">
        <ele>1635.128</ele>
        <time>2018-12-28T09:39:09Z</time>
      </trkpt>
      <trkpt lat="35.649370" lon="-111.516340">
        <ele>1635.126</ele>
        <time>2018-12-28T09:39:29Z</time>
      </trkpt>
      <trkpt lat="35.648890" lon="-111.516460">
        <ele>1635.348</ele>
        <time>2018-12-28T09:39:49Z</time>
      </trkpt>
      <trkpt lat="35.648380" lon="-111.516580">
        <ele>1635.697</ele>
        <time>2018-12-28T09:40:09Z</time>
      </trkpt>
      <trkpt lat="35.648150" lon="-111.516630">
        <ele>1635.755</ele>
        <time>2018-12-28T09:40:29Z</time>
      </trkpt>
      <trkpt lat="35.647930" lon="-111.516670">
        <ele>1635.807</ele>
        <time>2018-12-28T09:40:49Z</time>
      </trkpt>
      <trkpt lat="35.647640" lon="-111.516730">
        <ele>1635.817</ele>
        <time>2018-12-28T09:41:09Z</time>
      </trkpt>
      <trkpt lat="35.647390" lon="-111.516780">
        <ele>1635.708</ele>
        <time>2018-12-28T09:41:29Z</time>
      </trkpt>
      <trkpt lat="35.646930" lon="-111.516870">
        <ele>1635.088</ele>
        <time>2018-12-28T09:41:49Z</time>
      </trkpt>
      <trkpt lat="35.645870" lon="-111.517080">
        <ele>1634.586</ele>
        <time>2018-12-28T09:42:09Z</time>
      </trkpt>
      <trkpt lat="35.645510" lon="-111.517150">
        <ele>1634.021</ele>
        <time>2018-12-28T09:42:29Z</time>
      </trkpt>
      <trkpt lat="35.645090" lon="-111.517230">
        <ele>1633.872</ele>
        <time>2018-12-28T09:42:49Z</time>
      </trkpt>
      <trkpt lat="35.644820" lon="-111.517280">
        <ele>1633.727</ele>
        <time>2018-12-28T09:43:09Z</time>
      </trkpt>
      <trkpt lat="35.644410" lon="-111.517370">
        <ele>1633.725</ele>
        <time>2018-12-28T09:43:29Z</time>
      </trkpt>
      <trkpt lat="35.643810" lon="-111.517480">
        <ele>1634.277</ele>
        <time>2018-12-28T09:43:49Z</time>
      </trkpt>
      <trkpt lat="35.643340" lon="-111.517570">
        <ele>1634.656</ele>
        <time>2018-12-28T09:44:09Z</time>
      </trkpt>
      <trkpt lat="35.641680" lon="-111.517890">
        <ele>1636.259</ele>
        <time>2018-12-28T09:44:29Z</time>
      </trkpt>
      <trkpt lat="35.637510" lon="-111.518700">
        <ele>1640.703</ele>
        <time>2018-12-28T09:44:49Z</time>
      </trkpt>
      <trkpt lat="35.636710" lon="-111.518860">
        <ele>1640.723</ele>
        <time>2018-12-28T09:45:09Z</time>
      </trkpt>
      <trkpt lat="35.636350" lon="-111.518930">
        <ele>1640.808</ele>
        <time>2018-12-28T09:45:29Z</time>
      </trkpt>
      <trkpt lat="35.636140" lon="-111.518970">
        <ele>1641.438</ele>
        <time>2018-12-28T09:45:49Z</time>
      </trkpt>
      <trkpt lat="35.636080" lon="-111.518980">
        <ele>1641.716</ele>
        <time>2018-12-28T09:46:09Z</time>
      </trkpt>
      <trkpt lat="35.635670" lon="-111.519060">
        <ele>1644.741</ele>
        <time>2018-12-28T09:46:29Z</time>
      </trkpt>
      <trkpt lat="35.634200" lon="-111.519340">
        <ele>1651.922</ele>
        <time>2018-12-28T09:46:49Z</time>
      </trkpt>
      <trkpt lat="35.624380" lon="-111.521240">
        <ele>1665.357</ele>
        <time>2018-12-28T09:47:09Z</time>
      </trkpt>
      <trkpt lat="35.623950" lon="-111.521330">
        <ele>1666.095</ele>
        <time>2018-12-28T09:47:29Z</time>
      </trkpt>
      <trkpt lat="35.623750" lon="-111.521360">
        <ele>1666.297</ele>
        <time>2018-12-28T09:47:49Z</time>
      </trkpt>
      <trkpt lat="35.623230" lon="-111.521460">
        <ele>1666.886</ele>
        <time>2018-12-28T09:48:09Z</time>
      </trkpt>
      <trkpt lat="35.622900" lon="-111.521520">
        <ele>1667.155</ele>
        <time>2018-12-28T09:48:29Z</time>
      </trkpt>
      <trkpt lat="35.622430" lon="-111.521620">
        <ele>1667.507</ele>
        <time>2018-12-28T09:48:49Z</time>
      </trkpt>
      <trkpt lat="35.622350" lon="-111.521630">
        <ele>1667.617</ele>
        <time>2018-12-28T09:49:09Z</time>
      </trkpt>
      <trkpt lat="35.622030" lon="-111.521690">
        <ele>1667.508</ele>
        <time>2018-12-28T09:49:29Z</time>
      </trkpt>
      <trkpt lat="35.621980" lon="-111.521700">
        <ele>1667.578</ele>
        <time>2018-12-28T09:49:49Z</time>
      </trkpt>
      <trkpt lat="35.621680" lon="-111.521760">
        <ele>1667.386</ele>
        <time>2018-12-28T09:50:09Z</time>
      </trkpt>
      <trkpt lat="35.621440" lon="-111.521810">
        <ele>1667.371</ele>
        <time>2018-12-28T09:50:29Z</time>
      </trkpt>
      <trkpt lat="35.621190" lon="-111.521850">
        <ele>1667.312</ele>
        <time>2018-12-28T09:50:49Z</time>
      </trkpt>
      <trkpt lat="35.620880" lon="-111.521920">
        <ele>1666.927</ele>
        <time>2018-12-28T09:51:09Z</time>
      </trkpt>
      <trkpt lat="35.620550" lon="-111.521980">
        <ele>1666.275</ele>
        <time>2018-12-28T09:51:29Z</time>
      </trkpt>
      <trkpt lat="35.620250" lon="-111.522040">
        <ele>1665.547</ele>
        <time>2018-12-28T09:51:49Z</time>
      </trkpt>
      <trkpt lat="35.619910" lon="-111.522100">
        <ele>1665.666</ele>
        <time>2018-12-28T09:52:09Z</time>
      </trkpt>
      <trkpt lat="35.619280" lon="-111.522230">
        <ele>1666.261</ele>
        <time>2018-12-28T09:52:29Z</time>
      </trkpt>
      <trkpt lat="35.618910" lon="-111.522290">
        <ele>1666.521</ele>
        <time>2018-12-28T09:52:49Z</time>
      </trkpt>
      <trkpt lat="35.618640" lon="-111.522350">
        <ele>1667.013</ele>
        <time>2018-12-28T09:53:09Z</time>
      </trkpt>
      <trkpt lat="35.618110" lon="-111.522450">
        <ele>1668.408</ele>
        <time>2018-12-28T09:53:29Z</time>
      </trkpt>
      <trkpt lat="35.617720" lon="-111.522520">
        <ele>1669.389</ele>
        <time>2018-12-28T09:53:49Z</time>
      </trkpt>
      <trkpt lat="35.615790" lon="-111.522890">
        <ele>1671.037</ele>
        <time>2018-12-28T09:54:09Z</time>
      </trkpt>
      <trkpt lat="35.615220" lon="-111.523010">
        <ele>1671.412</ele>
        <time>2018-12-28T09:54:29Z</time>
      </trkpt>
      <trkpt lat="35.613770" lon="-111.523280">
        <ele>1674.583</ele>
        <time>2018-12-28T09:54:49Z</time>
      </trkpt>
      <trkpt lat="35.613060" lon="-111.523420">
        <ele>1675.188</ele>
        <time>2018-12-28T09:55:09Z</time>
      </trkpt>
      <trkpt lat="35.613010" lon="-111.523440">
        <ele>1675.186</ele>
        <time>2018-12-28T09:55:29Z</time>
      </trkpt>
      <trkpt lat="35.612970" lon="-111.523460">
        <ele>1675.188</ele>
        <time>2018-12-28T09:55:49Z</time>
      </trkpt>
      <trkpt lat="35.612960" lon="-111.523460">
        <ele>1675.127</ele>
        <time>2018-12-28T09:56:09Z</time>
      </trkpt>
      <trkpt lat="35.612940" lon="-111.523470">
        <ele>1675.114</ele>
        <time>2018-12-28T09:56:29Z</time>
      </trkpt>
      <trkpt lat="35.612650" lon="-111.523520">
        <ele>1675.254</ele>
        <time>2018-12-28T09:56:49Z</time>
      </trkpt>
      <trkpt lat="35.611250" lon="-111.523780">
        <ele>1675.909</ele>
        <time>2018-12-28T09:57:09Z</time>
      </trkpt>
      <trkpt lat="35.609470" lon="-111.524120">
        <ele>1676.908</ele>
        <time>2018-12-28T09:57:29Z</time>
      </trkpt>
      <trkpt lat="35.608950" lon="-111.524220">
        <ele>1676.974</ele>
        <time>2018-12-28T09:57:49Z</time>
      </trkpt>
      <trkpt lat="35.605430" lon="-111.524910">
        <ele>1677.162</ele>
        <time>2018-12-28T09:58:09Z</time>
      </trkpt>
      <trkpt lat="35.604880" lon="-111.525020">
        <ele>1677.357</ele>
        <time>2018-12-28T09:58:29Z</time>
      </trkpt>
      <trkpt lat="35.604480" lon="-111.525090">
        <ele>1677.868</ele>
        <time>2018-12-28T09:58:49Z</time>
      </trkpt>
      <trkpt lat="35.603590" lon="-111.525270">
        <ele>1678.163</ele>
        <time>2018-12-28T09:59:09Z</time>
      </trkpt>
      <trkpt lat="35.602220" lon="-111.525530">
        <ele>1680.151</ele>
        <time>2018-12-28T09:59:29Z</time>
      </trkpt>
      <trkpt lat="35.600960" lon="-111.525780">
        <ele>1681.993</ele>
        <time>2018-12-28T09:59:49Z</time>
      </trkpt>
      <trkpt lat="35.598440" lon="-111.526260">
        <ele>1684.052</ele>
        <time>2018-12-28T10:00:09Z</time>
      </trkpt>
      <trkpt lat="35.593780" lon="-111.527170">
        <ele>1690.583</ele>
        <time>2018-12-28T10:00:29Z</time>
      </trkpt>
      <trkpt lat="35.593480" lon="-111.527220">
        <ele>1690.825</ele>
        <time>2018-12-28T10:00:49Z</time>
      </trkpt>
      <trkpt lat="35.592850" lon="-111.527340">
        <ele>1691.417</ele>
        <time>2018-12-28T10:01:09Z</time>
      </trkpt>
      <trkpt lat="35.592520" lon="-111.527410">
        <ele>1691.608</ele>
        <time>2018-12-28T10:01:29Z</time>
      </trkpt>
      <trkpt lat="35.592070" lon="-111.527500">
        <ele>1691.951</ele>
        <time>2018-12-28T10:01:49Z</time>
      </trkpt>
      <trkpt lat="35.591380" lon="-111.527630">
        <ele>1692.499</ele>
        <time>2018-12-28T10:02:09Z</time>
      </trkpt>
      <trkpt lat="35.591090" lon="-111.527690">
        <ele>1692.614</ele>
        <time>2018-12-28T10:02:29Z</time>
      </trkpt>
      <trkpt lat="35.589690" lon="-111.527960">
        <ele>1693.155</ele>
        <time>2018-12-28T10:02:49Z</time>
      </trkpt>
      <trkpt lat="35.586140" lon="-111.528640">
        <ele>1693.190</ele>
        <time>2018-12-28T10:03:09Z</time>
      </trkpt>
      <trkpt lat="35.585240" lon="-111.528820">
        <ele>1693.088</ele>
        <time>2018-12-28T10:03:29Z</time>
      </trkpt>
      <trkpt lat="35.584440" lon="-111.528970">
        <ele>1692.840</ele>
        <time>2018-12-28T10:03:49Z</time>
      </trkpt>
      <trkpt lat="35.583970" lon="-111.529060">
        <ele>1692.689</ele>
        <time>2018-12-28T10:04:09Z</time>
      </trkpt>
      <trkpt lat="35.583440" lon="-111.529160">
        <ele>1692.479</ele>
        <time>2018-12-28T10:04:29Z</time>
      </trkpt>
      <trkpt lat="35.583180" lon="-111.529210">
        <ele>1692.305</ele>
        <time>2018-12-28T10:04:49Z</time>
      </trkpt>
      <trkpt lat="35.582300" lon="-111.529380">
        <ele>1692.225</ele>
        <time>2018-12-28T10:05:09Z</time>
      </trkpt>
      <trkpt lat="35.582040" lon="-111.529430">
        <ele>1692.508</ele>
        <time>2018-12-28T10:05:29Z</time>
      </trkpt>
      <trkpt lat="35.581320" lon="-111.529580">
        <ele>1696.070</ele>
        <time>2018-12-28T10:05:49Z</time>
      </trkpt>
      <trkpt lat="35.580330" lon="-111.529770">
        <ele>1699.818</ele>
        <time>2018-12-28T10:06:09Z</time>
      </trkpt>
      <trkpt lat="35.580120" lon="-111.529810">
        <ele>1700.713</ele>
        <time>2018-12-28T10:06:29Z</time>
      </trkpt>
      <trkpt lat="35.579630" lon="-111.529900">
        <ele>1701.684</ele>
        <time>2018-12-28T10:06:49Z</time>
      </trkpt>
      <trkpt lat="35.579050" lon="-111.530010">
        <ele>1703.449</ele>
        <time>2018-12-28T10:07:09Z</time>
      </trkpt>
      <trkpt lat="35.577830" lon="-111.530270">
        <ele>1706.547</ele>
        <time>2018-12-28T10:07:29Z</time>
      </trkpt>
      <trkpt lat="35.577770" lon="-111.530310">
        <ele>1706.729</ele>
        <time>2018-12-28T10:07:49Z</time>
      </trkpt>
      <trkpt lat="35.577700" lon="-111.530340">
        <ele>1706.918</ele>
        <time>2018-12-28T10:08:09Z</time>
      </trkpt>
      <trkpt lat="35.577460" lon="-111.530390">
        <ele>1707.587</ele>
        <time>2018-12-28T10:08:29Z</time>
      </trkpt>
      <trkpt lat="35.576470" lon="-111.530590">
        <ele>1710.142</ele>
        <time>2018-12-28T10:08:49Z</time>
      </trkpt>
      <trkpt lat="35.574860" lon="-111.530900">
        <ele>1713.426</ele>
        <time>2018-12-28T10:09:09Z</time>
      </trkpt>
      <trkpt lat="35.574020" lon="-111.531090">
        <ele>1712.908</ele>
        <time>2018-12-28T10:09:29Z</time>
      </trkpt>
      <trkpt lat="35.573640" lon="-111.531170">
        <ele>1712.761</ele>
        <time>2018-12-28T10:09:49Z</time>
      </trkpt>
      <trkpt lat="35.573550" lon="-111.531180">
        <ele>1712.869</ele>
        <time>2018-12-28T10:10:09Z</time>
      </trkpt>
      <trkpt lat="35.573530" lon="-111.531180">
        <ele>1712.894</ele>
        <time>2018-12-28T10:10:29Z</time>
      </trkpt>
      <trkpt lat="35.573480" lon="-111.531150">
        <ele>1712.865</ele>
        <time>2018-12-28T10:10:49Z</time>
      </trkpt>
      <trkpt lat="35.570430" lon="-111.531890">
        <ele>1718.570</ele>
        <time>2018-12-28T10:11:09Z</time>
      </trkpt>
      <trkpt lat="35.569910" lon="-111.532020">
        <ele>1719.358</ele>
        <time>2018-12-28T10:11:29Z</time>
      </trkpt>
      <trkpt lat="35.569110" lon="-111.532210">
        <ele>1719.850</ele>
        <time>2018-12-28T10:11:49Z</time>
      </trkpt>
      <trkpt lat="35.568870" lon="-111.532270">
        <ele>1719.899</ele>
        <time>2018-12-28T10:12:09Z</time>
      </trkpt>
      <trkpt lat="35.567310" lon="-111.532650">
        <ele>1718.399</ele>
        <time>2018-12-28T10:12:29Z</time>
      </trkpt>
      <trkpt lat="35.566860" lon="-111.532760">
        <ele>1717.107</ele>
        <time>2018-12-28T10:12:49Z</time>
      </trkpt>
      <trkpt lat="35.566510" lon="-111.532840">
        <ele>1715.727</ele>
        <time>2018-12-28T10:13:09Z</time>
      </trkpt>
      <trkpt lat="35.566460" lon="-111.532850">
        <ele>1715.408</ele>
        <time>2018-12-28T10:13:29Z</time>
      </trkpt>
      <trkpt lat="35.565790" lon="-111.533020">
        <ele>1712.922</ele>
        <time>2018-12-28T10:13:49Z</time>
      </trkpt>
      <trkpt lat="35.565240" lon="-111.533150">
        <ele>1712.440</ele>
        <time>2018-12-28T10:14:09Z</time>
      </trkpt>
      <trkpt lat="35.564800" lon="-111.533260">
        <ele>1712.025</ele>
        <time>2018-12-28T10:14:29Z</time>
      </trkpt>
      <trkpt lat="35.564010" lon="-111.533450">
        <ele>1711.626</ele>
        <time>2018-12-28T10:14:49Z</time>
      </trkpt>
      <trkpt lat="35.563730" lon="-111.533520">
        <ele>1711.521</ele>
        <time>2018-12-28T10:15:09Z</time>
      </trkpt>
      <trkpt lat="35.563290" lon="-111.533630">
        <ele>1711.329</ele>
        <time>2018-12-28T10:15:29Z</time>
      </trkpt>
      <trkpt lat="35.562920" lon="-111.533720">
        <ele>1710.991</ele>
        <time>2018-12-28T10:15:49Z</time>
      </trkpt>
      <trkpt lat="35.562530" lon="-111.533810">
        <ele>1710.160</ele>
        <time>2018-12-28T10:16:09Z</time>
      </trkpt>
      <trkpt lat="35.561580" lon="-111.534040">
        <ele>1708.014</ele>
        <time>2018-12-28T10:16:29Z</time>
      </trkpt>
      <trkpt lat="35.560590" lon="-111.534280">
        <ele>1707.154</ele>
        <time>2018-12-28T10:16:49Z</time>
      </trkpt>
      <trkpt lat="35.558240" lon="-111.534850">
        <ele>1704.309</ele>
        <time>2018-12-28T10:17:09Z</time>
      </trkpt>
      <trkpt lat="35.558040" lon="-111.534900">
        <ele>1704.208</ele>
        <time>2018-12-28T10:17:29Z</time>
      </trkpt>
      <trkpt lat="35.556680" lon="-111.535230">
        <ele>1707.174</ele>
        <time>2018-12-28T10:17:49Z</time>
      </trkpt>
      <trkpt lat="35.555590" lon="-111.535510">
        <ele>1711.312</ele>
        <time>2018-12-28T10:18:09Z</time>
      </trkpt>
      <trkpt lat="35.553700" lon="-111.535960">
        <ele>1709.027</ele>
        <time>2018-12-28T10:18:29Z</time>
      </trkpt>
      <trkpt lat="35.552450" lon="-111.536270">
        <ele>1713.968</ele>
        <time>2018-12-28T10:18:49Z</time>
      </trkpt>
      <trkpt lat="35.551740" lon="-111.536430">
        <ele>1714.223</ele>
        <time>2018-12-28T10:19:09Z</time>
      </trkpt>
      <trkpt lat="35.550220" lon="-111.536800">
        <ele>1715.831</ele>
        <time>2018-12-28T10:19:29Z</time>
      </trkpt>
      <trkpt lat="35.549700" lon="-111.536920">
        <ele>1717.213</ele>
        <time>2018-12-28T10:19:49Z</time>
      </trkpt>
      <trkpt lat="35.549270" lon="-111.537030">
        <ele>1718.472</ele>
        <time>2018-12-28T10:20:09Z</time>
      </trkpt>
      <trkpt lat="35.549210" lon="-111.537040">
        <ele>1718.687</ele>
        <time>2018-12-28T10:20:29Z</time>
      </trkpt>
      <trkpt lat="35.548810" lon="-111.537140">
        <ele>1719.942</ele>
        <time>2018-12-28T10:20:49Z</time>
      </trkpt>
      <trkpt lat="35.547150" lon="-111.537550">
        <ele>1724.526</ele>
        <time>2018-12-28T10:21:09Z</time>
      </trkpt>
      <trkpt lat="35.541100" lon="-111.539020">
        <ele>1747.108</ele>
        <time>2018-12-28T10:21:29Z</time>
      </trkpt>
      <trkpt lat="35.540300" lon="-111.539220">
        <ele>1748.521</ele>
        <time>2018-12-28T10:21:49Z</time>
      </trkpt>
      <trkpt lat="35.539580" lon="-111.539390">
        <ele>1749.749</ele>
        <time>2018-12-28T10:22:09Z</time>
      </trkpt>
      <trkpt lat="35.538100" lon="-111.539740">
        <ele>1755.124</ele>
        <time>2018-12-28T10:22:29Z</time>
      </trkpt>
      <trkpt lat="35.537210" lon="-111.539930">
        <ele>1757.375</ele>
        <time>2018-12-28T10:22:49Z</time>
      </trkpt>
      <trkpt lat="35.536960" lon="-111.540030">
        <ele>1757.550</ele>
        <time>2018-12-28T10:23:09Z</time>
      </trkpt>
      <trkpt lat="35.536380" lon="-111.540170">
        <ele>1759.378</ele>
        <time>2018-12-28T10:23:29Z</time>
      </trkpt>
      <trkpt lat="35.535900" lon="-111.540280">
        <ele>1762.010</ele>
        <time>2018-12-28T10:23:49Z</time>
      </trkpt>
      <trkpt lat="35.531960" lon="-111.541240">
        <ele>1771.119</ele>
        <time>2018-12-28T10:24:09Z</time>
      </trkpt>
      <trkpt lat="35.529790" lon="-111.541770">
        <ele>1774.645</ele>
        <time>2018-12-28T10:24:29Z</time>
      </trkpt>
      <trkpt lat="35.522750" lon="-111.543480">
        <ele>1795.247</ele>
        <time>2018-12-28T10:24:49Z</time>
      </trkpt>
      <trkpt lat="35.522130" lon="-111.543610">
        <ele>1796.711</ele>
        <time>2018-12-28T10:25:09Z</time>
      </trkpt>
      <trkpt lat="35.521310" lon="-111.543750">
        <ele>1799.108</ele>
        <time>2018-12-28T10:25:29Z</time>
      </trkpt>
      <trkpt lat="35.521020" lon="-111.543800">
        <ele>1801.597</ele>
        <time>2018-12-28T10:25:49Z</time>
      </trkpt>
      <trkpt lat="35.520440" lon="-111.543890">
        <ele>1803.055</ele>
        <time>2018-12-28T10:26:09Z</time>
      </trkpt>
      <trkpt lat="35.519030" lon="-111.544050">
        <ele>1807.080</ele>
        <time>2018-12-28T10:26:29Z</time>
      </trkpt>
      <trkpt lat="35.517330" lon="-111.544220">
        <ele>1808.321</ele>
        <time>2018-12-28T10:26:49Z</time>
      </trkpt>
      <trkpt lat="35.517010" lon="-111.544260">
        <ele>1809.346</ele>
        <time>2018-12-28T10:27:09Z</time>
      </trkpt>
      <trkpt lat="35.516760" lon="-111.544300">
        <ele>1809.254</ele>
        <time>2018-12-28T10:27:29Z</time>
      </trkpt>
      <trkpt lat="35.516670" lon="-111.544310">
        <ele>1809.856</ele>
        <time>2018-12-28T10:27:49Z</time>
      </trkpt>
      <trkpt lat="35.516570" lon="-111.544330">
        <ele>1810.445</ele>
        <time>2018-12-28T10:28:09Z</time>
      </trkpt>
      <trkpt lat="35.516270" lon="-111.544390">
        <ele>1811.538</ele>
        <time>2018-12-28T10:28:29Z</time>
      </trkpt>
      <trkpt lat="35.515960" lon="-111.544480">
        <ele>1811.770</ele>
        <time>2018-12-28T10:28:49Z</time>
      </trkpt>
      <trkpt lat="35.515760" lon="-111.544540">
        <ele>1811.917</ele>
        <time>2018-12-28T10:29:09Z</time>
      </trkpt>
      <trkpt lat="35.515570" lon="-111.544600">
        <ele>1812.108</ele>
        <time>2018-12-28T10:29:29Z</time>
      </trkpt>
      <trkpt lat="35.515230" lon="-111.544730">
        <ele>1812.556</ele>
        <time>2018-12-28T10:29:49Z</time>
      </trkpt>
      <trkpt lat="35.515030" lon="-111.544800">
        <ele>1812.734</ele>
        <time>2018-12-28T10:30:09Z</time>
      </trkpt>
      <trkpt lat="35.514730" lon="-111.544930">
        <ele>1813.129</ele>
        <time>2018-12-28T10:30:29Z</time>
      </trkpt>
      <trkpt lat="35.513890" lon="-111.545310">
        <ele>1817.670</ele>
        <time>2018-12-28T10:30:49Z</time>
      </trkpt>
      <trkpt lat="35.513340" lon="-111.545560">
        <ele>1817.975</ele>
        <time>2018-12-28T10:31:09Z</time>
      </trkpt>
      <trkpt lat="35.512290" lon="-111.546030">
        <ele>1820.253</ele>
        <time>2018-12-28T10:31:29Z</time>
      </trkpt>
      <trkpt lat="35.511100" lon="-111.546570">
        <ele>1824.935</ele>
        <time>2018-12-28T10:31:49Z</time>
      </trkpt>
      <trkpt lat="35.507750" lon="-111.548080">
        <ele>1837.564</ele>
        <time>2018-12-28T10:32:09Z</time>
      </trkpt>
      <trkpt lat="35.501800" lon="-111.550780">
        <ele>1859.443</ele>
        <time>2018-12-28T10:32:29Z</time>
      </trkpt>
      <trkpt lat="35.501020" lon="-111.551120">
        <ele>1861.364</ele>
        <time>2018-12-28T10:32:49Z</time>
      </trkpt>
      <trkpt lat="35.500730" lon="-111.551260">
        <ele>1862.110</ele>
        <time>2018-12-28T10:33:09Z</time>
      </trkpt>
      <trkpt lat="35.500580" lon="-111.551320">
        <ele>1862.508</ele>
        <time>2018-12-28T10:33:29Z</time>
      </trkpt>
      <trkpt lat="35.500480" lon="-111.551370">
        <ele>1862.847</ele>
        <time>2018-12-28T10:33:49Z</time>
      </trkpt>
      <trkpt lat="35.500330" lon="-111.551440">
        <ele>1863.315</ele>
        <time>2018-12-28T10:34:09Z</time>
      </trkpt>
      <trkpt lat="35.500020" lon="-111.551580">
        <ele>1864.350</ele>
        <time>2018-12-28T10:34:29Z</time>
      </trkpt>
      <trkpt lat="35.499230" lon="-111.551930">
        <ele>1863.911</ele>
        <time>2018-12-28T10:34:49Z</time>
      </trkpt>
      <trkpt lat="35.499070" lon="-111.552000">
        <ele>1864.116</ele>
        <time>2018-12-28T10:35:09Z</time>
      </trkpt>
      <trkpt lat="35.497310" lon="-111.552800">
        <ele>1866.684</ele>
        <time>2018-12-28T10:35:29Z</time>
      </trkpt>
      <trkpt lat="35.494940" lon="-111.553870">
        <ele>1873.896</ele>
        <time>2018-12-28T10:35:49Z</time>
      </trkpt>
      <trkpt lat="35.494040" lon="-111.554280">
        <ele>1878.955</ele>
        <time>2018-12-28T10:36:09Z</time>
      </trkpt>
      <trkpt lat="35.493680" lon="-111.554440">
        <ele>1880.394</ele>
        <time>2018-12-28T10:36:29Z</time>
      </trkpt>
      <trkpt lat="35.493510" lon="-111.554500">
        <ele>1881.657</ele>
        <time>2018-12-28T10:36:49Z</time>
      </trkpt>
      <trkpt lat="35.493260" lon="-111.554590">
        <ele>1884.122</ele>
        <time>2018-12-28T10:37:09Z</time>
      </trkpt>
      <trkpt lat="35.493010" lon="-111.554670">
        <ele>1885.908</ele>
        <time>2018-12-28T10:37:29Z</time>
      </trkpt>
      <trkpt lat="35.492840" lon="-111.554720">
        <ele>1887.022</ele>
        <time>2018-12-28T10:37:49Z</time>
      </trkpt>
      <trkpt lat="35.492670" lon="-111.554770">
        <ele>1888.090</ele>
        <time>2018-12-28T10:38:09Z</time>
      </trkpt>
      <trkpt lat="35.492570" lon="-111.554790">
        <ele>1888.545</ele>
        <time>2018-12-28T10:38:29Z</time>
      </trkpt>
      <trkpt lat="35.492500" lon="-111.554810">
        <ele>1888.996</ele>
        <time>2018-12-28T10:38:49Z</time>
      </trkpt>
      <trkpt lat="35.492250" lon="-111.554870">
        <ele>1890.141</ele>
        <time>2018-12-28T10:39:09Z</time>
      </trkpt>
      <trkpt lat="35.491570" lon="-111.554990">
        <ele>1893.979</ele>
        <time>2018-12-28T10:39:29Z</time>
      </trkpt>
      <trkpt lat="35.485100" lon="-111.556020">
        <ele>1908.361</ele>
        <time>2018-12-28T10:39:49Z</time>
      </trkpt>
      <trkpt lat="35.484670" lon="-111.556080">
        <ele>1908.830</ele>
        <time>2018-12-28T10:40:09Z</time>
      </trkpt>
      <trkpt lat="35.484240" lon="-111.556150">
        <ele>1909.622</ele>
        <time>2018-12-28T10:40:29Z</time>
      </trkpt>
      <trkpt lat="35.482360" lon="-111.556450">
        <ele>1915.462</ele>
        <time>2018-12-28T10:40:49Z</time>
      </trkpt>
      <trkpt lat="35.482030" lon="-111.556500">
        <ele>1915.708</ele>
        <time>2018-12-28T10:41:09Z</time>
      </trkpt>
      <trkpt lat="35.481260" lon="-111.556620">
        <ele>1916.508</ele>
        <time>2018-12-28T10:41:29Z</time>
      </trkpt>
      <trkpt lat="35.480500" lon="-111.556750">
        <ele>1917.385</ele>
        <time>2018-12-28T10:41:49Z</time>
      </trkpt>
      <trkpt lat="35.479630" lon="-111.556890">
        <ele>1918.033</ele>
        <time>2018-12-28T10:42:09Z</time>
      </trkpt>
      <trkpt lat="35.478950" lon="-111.556990">
        <ele>1918.968</ele>
        <time>2018-12-28T10:42:29Z</time>
      </trkpt>
      <trkpt lat="35.477710" lon="-111.557190">
        <ele>1920.189</ele>
        <time>2018-12-28T10:42:49Z</time>
      </trkpt>
      <trkpt lat="35.476320" lon="-111.557410">
        <ele>1921.354</ele>
        <time>2018-12-28T10:43:09Z</time>
      </trkpt>
      <trkpt lat="35.475680" lon="-111.557510">
        <ele>1921.992</ele>
        <time>2018-12-28T10:43:29Z</time>
      </trkpt>
      <trkpt lat="35.474860" lon="-111.557640">
        <ele>1922.314</ele>
        <time>2018-12-28T10:43:49Z</time>
      </trkpt>
      <trkpt lat="35.473620" lon="-111.557840">
        <ele>1923.213</ele>
        <time>2018-12-28T10:44:09Z</time>
      </trkpt>
      <trkpt lat="35.471730" lon="-111.558140">
        <ele>1924.771</ele>
        <time>2018-12-28T10:44:29Z</time>
      </trkpt>
      <trkpt lat="35.470750" lon="-111.558300">
        <ele>1924.241</ele>
        <time>2018-12-28T10:44:49Z</time>
      </trkpt>
      <trkpt lat="35.469970" lon="-111.558430">
        <ele>1923.515</ele>
        <time>2018-12-28T10:45:09Z</time>
      </trkpt>
      <trkpt lat="35.469110" lon="-111.558570">
        <ele>1922.308</ele>
        <time>2018-12-28T10:45:29Z</time>
      </trkpt>
      <trkpt lat="35.468920" lon="-111.558600">
        <ele>1922.010</ele>
        <time>2018-12-28T10:45:49Z</time>
      </trkpt>
      <trkpt lat="35.468470" lon="-111.558700">
        <ele>1921.458</ele>
        <time>2018-12-28T10:46:09Z</time>
      </trkpt>
      <trkpt lat="35.468120" lon="-111.558770">
        <ele>1920.593</ele>
        <time>2018-12-28T10:46:29Z</time>
      </trkpt>
      <trkpt lat="35.467660" lon="-111.558880">
        <ele>1918.374</ele>
        <time>2018-12-28T10:46:49Z</time>
      </trkpt>
      <trkpt lat="35.467230" lon="-111.558980">
        <ele>1916.019</ele>
        <time>2018-12-28T10:47:09Z</time>
      </trkpt>
      <trkpt lat="35.466820" lon="-111.559090">
        <ele>1915.247</ele>
        <time>2018-12-28T10:47:29Z</time>
      </trkpt>
      <trkpt lat="35.466390" lon="-111.559200">
        <ele>1915.129</ele>
        <time>2018-12-28T10:47:49Z</time>
      </trkpt>
      <trkpt lat="35.465880" lon="-111.559340">
        <ele>1915.158</ele>
        <time>2018-12-28T10:48:09Z</time>
      </trkpt>
      <trkpt lat="35.465110" lon="-111.559540">
        <ele>1914.315</ele>
        <time>2018-12-28T10:48:29Z</time>
      </trkpt>
      <trkpt lat="35.464350" lon="-111.559730">
        <ele>1914.765</ele>
        <time>2018-12-28T10:48:49Z</time>
      </trkpt>
      <trkpt lat="35.463530" lon="-111.559940">
        <ele>1915.011</ele>
        <time>2018-12-28T10:49:09Z</time>
      </trkpt>
      <trkpt lat="35.462750" lon="-111.560140">
        <ele>1915.608</ele>
        <time>2018-12-28T10:49:29Z</time>
      </trkpt>
      <trkpt lat="35.462080" lon="-111.560320">
        <ele>1916.244</ele>
        <time>2018-12-28T10:49:49Z</time>
      </trkpt>
      <trkpt lat="35.461420" lon="-111.560490">
        <ele>1917.092</ele>
        <time>2018-12-28T10:50:09Z</time>
      </trkpt>
      <trkpt lat="35.461080" lon="-111.560580">
        <ele>1917.447</ele>
        <time>2018-12-28T10:50:29Z</time>
      </trkpt>
      <trkpt lat="35.460560" lon="-111.560720">
        <ele>1918.178</ele>
        <time>2018-12-28T10:50:49Z</time>
      </trkpt>
      <trkpt lat="35.460030" lon="-111.560850">
        <ele>1918.683</ele>
        <time>2018-12-28T10:51:09Z</time>
      </trkpt>
      <trkpt lat="35.459160" lon="-111.561080">
        <ele>1919.491</ele>
        <time>2018-12-28T10:51:29Z</time>
      </trkpt>
      <trkpt lat="35.458410" lon="-111.561280">
        <ele>1920.133</ele>
        <time>2018-12-28T10:51:49Z</time>
      </trkpt>
      <trkpt lat="35.457980" lon="-111.561390">
        <ele>1920.612</ele>
        <time>2018-12-28T10:52:09Z</time>
      </trkpt>
      <trkpt lat="35.456580" lon="-111.561750">
        <ele>1923.285</ele>
        <time>2018-12-28T10:52:29Z</time>
      </trkpt>
      <trkpt lat="35.455120" lon="-111.562130">
        <ele>1926.189</ele>
        <time>2018-12-28T10:52:49Z</time>
      </trkpt>
      <trkpt lat="35.452140" lon="-111.562900">
        <ele>1931.617</ele>
        <time>2018-12-28T10:53:09Z</time>
      </trkpt>
      <trkpt lat="35.450740" lon="-111.563260">
        <ele>1933.608</ele>
        <time>2018-12-28T10:53:29Z</time>
      </trkpt>
      <trkpt lat="35.450170" lon="-111.563400">
        <ele>1934.581</ele>
        <time>2018-12-28T10:53:49Z</time>
      </trkpt>
      <trkpt lat="35.449980" lon="-111.563460">
        <ele>1934.849</ele>
        <time>2018-12-28T10:54:09Z</time>
      </trkpt>
      <trkpt lat="35.449770" lon="-111.563510">
        <ele>1935.174</ele>
        <time>2018-12-28T10:54:29Z</time>
      </trkpt>
      <trkpt lat="35.449550" lon="-111.563570">
        <ele>1935.335</ele>
        <time>2018-12-28T10:54:49Z</time>
      </trkpt>
      <trkpt lat="35.449230" lon="-111.563650">
        <ele>1935.710</ele>
        <time>2018-12-28T10:55:09Z</time>
      </trkpt>
      <trkpt lat="35.448800" lon="-111.563760">
        <ele>1936.128</ele>
        <time>2018-12-28T10:55:29Z</time>
      </trkpt>
      <trkpt lat="35.448060" lon="-111.563960">
        <ele>1936.950</ele>
        <time>2018-12-28T10:55:49Z</time>
      </trkpt>
      <trkpt lat="35.447170" lon="-111.564190">
        <ele>1937.889</ele>
        <time>2018-12-28T10:56:09Z</time>
      </trkpt>
      <trkpt lat="35.445170" lon="-111.564710">
        <ele>1939.929</ele>
        <time>2018-12-28T10:56:29Z</time>
      </trkpt>
      <trkpt lat="35.444720" lon="-111.564820">
        <ele>1940.700</ele>
        <time>2018-12-28T10:56:49Z</time>
      </trkpt>
      <trkpt lat="35.443220" lon="-111.565220">
        <ele>1943.820</ele>
        <time>2018-12-28T10:57:09Z</time>
      </trkpt>
      <trkpt lat="35.442480" lon="-111.565410">
        <ele>1945.308</ele>
        <time>2018-12-28T10:57:29Z</time>
      </trkpt>
      <trkpt lat="35.441880" lon="-111.565570">
        <ele>1946.625</ele>
        <time>2018-12-28T10:57:49Z</time>
      </trkpt>
      <trkpt lat="35.441140" lon="-111.565750">
        <ele>1948.633</ele>
        <time>2018-12-28T10:58:09Z</time>
      </trkpt>
      <trkpt lat="35.440140" lon="-111.566010">
        <ele>1951.038</ele>
        <time>2018-12-28T10:58:29Z</time>
      </trkpt>
      <trkpt lat="35.439050" lon="-111.566290">
        <ele>1953.919</ele>
        <time>2018-12-28T10:58:49Z</time>
      </trkpt>
      <trkpt lat="35.438180" lon="-111.566520">
        <ele>1956.674</ele>
        <time>2018-12-28T10:59:09Z</time>
      </trkpt>
      <trkpt lat="35.437530" lon="-111.566690">
        <ele>1958.312</ele>
        <time>2018-12-28T10:59:29Z</time>
      </trkpt>
      <trkpt lat="35.436670" lon="-111.566910">
        <ele>1960.284</ele>
        <time>2018-12-28T10:59:49Z</time>
      </trkpt>
      <trkpt lat="35.435810" lon="-111.567130">
        <ele>1962.123</ele>
        <time>2018-12-28T11:00:09Z</time>
      </trkpt>
      <trkpt lat="35.434210" lon="-111.567550">
        <ele>1966.787</ele>
        <time>2018-12-28T11:00:29Z</time>
      </trkpt>
      <trkpt lat="35.433640" lon="-111.567700">
        <ele>1968.642</ele>
        <time>2018-12-28T11:00:49Z</time>
      </trkpt>
      <trkpt lat="35.432460" lon="-111.568000">
        <ele>1972.626</ele>
        <time>2018-12-28T11:01:09Z</time>
      </trkpt>
      <trkpt lat="35.431380" lon="-111.568280">
        <ele>1976.508</ele>
        <time>2018-12-28T11:01:29Z</time>
      </trkpt>
      <trkpt lat="35.430290" lon="-111.568560">
        <ele>1979.531</ele>
        <time>2018-12-28T11:01:49Z</time>
      </trkpt>
      <trkpt lat="35.429330" lon="-111.568820">
        <ele>1982.589</ele>
        <time>2018-12-28T11:02:09Z</time>
      </trkpt>
      <trkpt lat="35.428800" lon="-111.568950">
        <ele>1985.114</ele>
        <time>2018-12-28T11:02:29Z</time>
      </trkpt>
      <trkpt lat="35.428730" lon="-111.568970">
        <ele>1985.575</ele>
        <time>2018-12-28T11:02:49Z</time>
      </trkpt>
      <trkpt lat="35.427470" lon="-111.569290">
        <ele>1990.590</ele>
        <time>2018-12-28T11:03:09Z</time>
      </trkpt>
      <trkpt lat="35.425650" lon="-111.569760">
        <ele>1997.088</ele>
        <time>2018-12-28T11:03:29Z</time>
      </trkpt>
      <trkpt lat="35.425470" lon="-111.569810">
        <ele>1997.640</ele>
        <time>2018-12-28T11:03:49Z</time>
      </trkpt>
      <trkpt lat="35.423760" lon="-111.570250">
        <ele>2004.599</ele>
        <time>2018-12-28T11:04:09Z</time>
      </trkpt>
      <trkpt lat="35.422760" lon="-111.570510">
        <ele>2009.646</ele>
        <time>2018-12-28T11:04:29Z</time>
      </trkpt>
      <trkpt lat="35.421810" lon="-111.570760">
        <ele>2014.588</ele>
        <time>2018-12-28T11:04:49Z</time>
      </trkpt>
      <trkpt lat="35.420710" lon="-111.571050">
        <ele>2019.616</ele>
        <time>2018-12-28T11:05:09Z</time>
      </trkpt>
      <trkpt lat="35.419580" lon="-111.571340">
        <ele>2025.608</ele>
        <time>2018-12-28T11:05:29Z</time>
      </trkpt>
      <trkpt lat="35.418870" lon="-111.571530">
        <ele>2028.537</ele>
        <time>2018-12-28T11:05:49Z</time>
      </trkpt>
      <trkpt lat="35.418200" lon="-111.571700">
        <ele>2032.255</ele>
        <time>2018-12-28T11:06:09Z</time>
      </trkpt>
      <trkpt lat="35.417830" lon="-111.571790">
        <ele>2033.780</ele>
        <time>2018-12-28T11:06:29Z</time>
      </trkpt>
      <trkpt lat="35.417120" lon="-111.571970">
        <ele>2036.781</ele>
        <time>2018-12-28T11:06:49Z</time>
      </trkpt>
      <trkpt lat="35.416770" lon="-111.572070">
        <ele>2038.026</ele>
        <time>2018-12-28T11:07:09Z</time>
      </trkpt>
      <trkpt lat="35.416040" lon="-111.572250">
        <ele>2038.714</ele>
        <time>2018-12-28T11:07:29Z</time>
      </trkpt>
      <trkpt lat="35.415400" lon="-111.572420">
        <ele>2040.916</ele>
        <time>2018-12-28T11:07:49Z</time>
      </trkpt>
      <trkpt lat="35.414620" lon="-111.572620">
        <ele>2044.075</ele>
        <time>2018-12-28T11:08:09Z</time>
      </trkpt>
      <trkpt lat="35.414020" lon="-111.572780">
        <ele>2044.459</ele>
        <time>2018-12-28T11:08:29Z</time>
      </trkpt>
      <trkpt lat="35.413590" lon="-111.572900">
        <ele>2046.403</ele>
        <time>2018-12-28T11:08:49Z</time>
      </trkpt>
      <trkpt lat="35.412850" lon="-111.573080">
        <ele>2049.423</ele>
        <time>2018-12-28T11:09:09Z</time>
      </trkpt>
      <trkpt lat="35.412680" lon="-111.573130">
        <ele>2049.908</ele>
        <time>2018-12-28T11:09:29Z</time>
      </trkpt>
      <trkpt lat="35.412240" lon="-111.573240">
        <ele>2052.498</ele>
        <time>2018-12-28T11:09:49Z</time>
      </trkpt>
      <trkpt lat="35.411600" lon="-111.573410">
        <ele>2055.986</ele>
        <time>2018-12-28T11:10:09Z</time>
      </trkpt>
      <trkpt lat="35.411040" lon="-111.573550">
        <ele>2059.591</ele>
        <time>2018-12-28T11:10:29Z</time>
      </trkpt>
      <trkpt lat="35.410590" lon="-111.573670">
        <ele>2062.312</ele>
        <time>2018-12-28T11:10:49Z</time>
      </trkpt>
      <trkpt lat="35.410320" lon="-111.573740">
        <ele>2063.897</ele>
        <time>2018-12-28T11:11:09Z</time>
      </trkpt>
      <trkpt lat="35.409750" lon="-111.573880">
        <ele>2066.895</ele>
        <time>2018-12-28T11:11:29Z</time>
      </trkpt>
      <trkpt lat="35.408780" lon="-111.574140">
        <ele>2071.797</ele>
        <time>2018-12-28T11:11:49Z</time>
      </trkpt>
      <trkpt lat="35.408260" lon="-111.574280">
        <ele>2074.296</ele>
        <time>2018-12-28T11:12:09Z</time>
      </trkpt>
      <trkpt lat="35.407840" lon="-111.574380">
        <ele>2076.683</ele>
        <time>2018-12-28T11:12:29Z</time>
      </trkpt>
      <trkpt lat="35.407390" lon="-111.574500">
        <ele>2078.925</ele>
        <time>2018-12-28T11:12:49Z</time>
      </trkpt>
      <trkpt lat="35.406910" lon="-111.574630">
        <ele>2081.617</ele>
        <time>2018-12-28T11:13:09Z</time>
      </trkpt>
      <trkpt lat="35.406550" lon="-111.574720">
        <ele>2083.408</ele>
        <time>2018-12-28T11:13:29Z</time>
      </trkpt>
      <trkpt lat="35.406210" lon="-111.574810">
        <ele>2084.931</ele>
        <time>2018-12-28T11:13:49Z</time>
      </trkpt>
      <trkpt lat="35.405910" lon="-111.574880">
        <ele>2086.419</ele>
        <time>2018-12-28T11:14:09Z</time>
      </trkpt>
      <trkpt lat="35.405470" lon="-111.574990">
        <ele>2088.954</ele>
        <time>2018-12-28T11:14:29Z</time>
      </trkpt>
      <trkpt lat="35.405160" lon="-111.575070">
        <ele>2090.815</ele>
        <time>2018-12-28T11:14:49Z</time>
      </trkpt>
      <trkpt lat="35.402790" lon="-111.575690">
        <ele>2099.420</ele>
        <time>2018-12-28T11:15:09Z</time>
      </trkpt>
      <trkpt lat="35.402090" lon="-111.575870">
        <ele>2102.598</ele>
        <time>2018-12-28T11:15:29Z</time>
      </trkpt>
      <trkpt lat="35.401660" lon="-111.575980">
        <ele>2104.840</ele>
        <time>2018-12-28T11:15:49Z</time>
      </trkpt>
      <trkpt lat="35.401010" lon="-111.576150">
        <ele>2108.179</ele>
        <time>2018-12-28T11:16:09Z</time>
      </trkpt>
      <trkpt lat="35.398700" lon="-111.576750">
        <ele>2118.141</ele>
        <time>2018-12-28T11:16:29Z</time>
      </trkpt>
      <trkpt lat="35.398310" lon="-111.576850">
        <ele>2119.981</ele>
        <time>2018-12-28T11:16:49Z</time>
      </trkpt>
      <trkpt lat="35.397180" lon="-111.577140">
        <ele>2125.509</ele>
        <time>2018-12-28T11:17:09Z</time>
      </trkpt>
      <trkpt lat="35.396380" lon="-111.577350">
        <ele>2128.908</ele>
        <time>2018-12-28T11:17:29Z</time>
      </trkpt>
      <trkpt lat="35.395810" lon="-111.577500">
        <ele>2132.727</ele>
        <time>2018-12-28T11:17:49Z</time>
      </trkpt>
      <trkpt lat="35.395360" lon="-111.577610">
        <ele>2135.415</ele>
        <time>2018-12-28T11:18:09Z</time>
      </trkpt>
      <trkpt lat="35.395140" lon="-111.577670">
        <ele>2136.550</ele>
        <time>2018-12-28T11:18:29Z</time>
      </trkpt>
      <trkpt lat="35.394700" lon="-111.577790">
        <ele>2138.711</ele>
        <time>2018-12-28T11:18:49Z</time>
      </trkpt>
      <trkpt lat="35.394350" lon="-111.577880">
        <ele>2140.576</ele>
        <time>2018-12-28T11:19:09Z</time>
      </trkpt>
      <trkpt lat="35.393990" lon="-111.577970">
        <ele>2143.354</ele>
        <time>2018-12-28T11:19:29Z</time>
      </trkpt>
      <trkpt lat="35.393650" lon="-111.578050">
        <ele>2146.196</ele>
        <time>2018-12-28T11:19:49Z</time>
      </trkpt>
      <trkpt lat="35.393200" lon="-111.578170">
        <ele>2148.965</ele>
        <time>2018-12-28T11:20:09Z</time>
      </trkpt>
      <trkpt lat="35.392670" lon="-111.578310">
        <ele>2151.745</ele>
        <time>2018-12-28T11:20:29Z</time>
      </trkpt>
      <trkpt lat="35.391740" lon="-111.578540">
        <ele>2156.847</ele>
        <time>2018-12-28T11:20:49Z</time>
      </trkpt>
      <trkpt lat="35.390320" lon="-111.578920">
        <ele>2164.711</ele>
        <time>2018-12-28T11:21:09Z</time>
      </trkpt>
      <trkpt lat="35.389750" lon="-111.579070">
        <ele>2167.908</ele>
        <time>2018-12-28T11:21:29Z</time>
      </trkpt>
      <trkpt lat="35.389110" lon="-111.579230">
        <ele>2171.897</ele>
        <time>2018-12-28T11:21:49Z</time>
      </trkpt>
      <trkpt lat="35.388420" lon="-111.579410">
        <ele>2176.435</ele>
        <time>2018-12-28T11:22:09Z</time>
      </trkpt>
      <trkpt lat="35.387800" lon="-111.579570">
        <ele>2180.480</ele>
        <time>2018-12-28T11:22:29Z</time>
      </trkpt>
      <trkpt lat="35.387180" lon="-111.579730">
        <ele>2184.551</ele>
        <time>2018-12-28T11:22:49Z</time>
      </trkpt>
      <trkpt lat="35.386610" lon="-111.579880">
        <ele>2189.116</ele>
        <time>2018-12-28T11:23:09Z</time>
      </trkpt>
      <trkpt lat="35.386110" lon="-111.580000">
        <ele>2192.524</ele>
        <time>2018-12-28T11:23:29Z</time>
      </trkpt>
      <trkpt lat="35.385680" lon="-111.580110">
        <ele>2196.226</ele>
        <time>2018-12-28T11:23:49Z</time>
      </trkpt>
      <trkpt lat="35.385170" lon="-111.580250">
        <ele>2198.315</ele>
        <time>2018-12-28T11:24:09Z</time>
      </trkpt>
      <trkpt lat="35.384770" lon="-111.580350">
        <ele>2200.988</ele>
        <time>2018-12-28T11:24:29Z</time>
      </trkpt>
      <trkpt lat="35.384330" lon="-111.580470">
        <ele>2203.724</ele>
        <time>2018-12-28T11:24:49Z</time>
      </trkpt>
      <trkpt lat="35.384150" lon="-111.580510">
        <ele>2205.026</ele>
        <time>2018-12-28T11:25:09Z</time>
      </trkpt>
      <trkpt lat="35.383970" lon="-111.580560">
        <ele>2206.308</ele>
        <time>2018-12-28T11:25:29Z</time>
      </trkpt>
      <trkpt lat="35.383520" lon="-111.580680">
        <ele>2209.011</ele>
        <time>2018-12-28T11:25:49Z</time>
      </trkpt>
      <trkpt lat="35.382900" lon="-111.580820">
        <ele>2211.589</ele>
        <time>2018-12-28T11:26:09Z</time>
      </trkpt>
      <trkpt lat="35.382760" lon="-111.580840">
        <ele>2211.914</ele>
        <time>2018-12-28T11:26:29Z</time>
      </trkpt>
      <trkpt lat="35.382600" lon="-111.580870">
        <ele>2212.485</ele>
        <time>2018-12-28T11:26:49Z</time>
      </trkpt>
      <trkpt lat="35.382360" lon="-111.580890">
        <ele>2212.760</ele>
        <time>2018-12-28T11:27:09Z</time>
      </trkpt>
      <trkpt lat="35.382170" lon="-111.580900">
        <ele>2213.088</ele>
        <time>2018-12-28T11:27:29Z</time>
      </trkpt>
      <trkpt lat="35.381910" lon="-111.580900">
        <ele>2213.560</ele>
        <time>2018-12-28T11:27:49Z</time>
      </trkpt>
      <trkpt lat="35.381720" lon="-111.580890">
        <ele>2214.449</ele>
        <time>2018-12-28T11:28:09Z</time>
      </trkpt>
      <trkpt lat="35.381520" lon="-111.580870">
        <ele>2215.738</ele>
        <time>2018-12-28T11:28:29Z</time>
      </trkpt>
      <trkpt lat="35.381340" lon="-111.580840">
        <ele>2216.870</ele>
        <time>2018-12-28T11:28:49Z</time>
      </trkpt>
      <trkpt lat="35.381120" lon="-111.580800">
        <ele>2218.117</ele>
        <time>2018-12-28T11:29:09Z</time>
      </trkpt>
      <trkpt lat="35.380890" lon="-111.580740">
        <ele>2219.408</ele>
        <time>2018-12-28T11:29:29Z</time>
      </trkpt>
      <trkpt lat="35.380680" lon="-111.580680">
        <ele>2220.636</ele>
        <time>2018-12-28T11:29:49Z</time>
      </trkpt>
      <trkpt lat="35.380550" lon="-111.580640">
        <ele>2221.184</ele>
        <time>2018-12-28T11:30:09Z</time>
      </trkpt>
      <trkpt lat="35.380370" lon="-111.580570">
        <ele>2221.719</ele>
        <time>2018-12-28T11:30:29Z</time>
      </trkpt>
      <trkpt lat="35.380220" lon="-111.580500">
        <ele>2222.040</ele>
        <time>2018-12-28T11:30:49Z</time>
      </trkpt>
      <trkpt lat="35.380060" lon="-111.580430">
        <ele>2222.315</ele>
        <time>2018-12-28T11:31:09Z</time>
      </trkpt>
      <trkpt lat="35.379870" lon="-111.580320">
        <ele>2222.383</ele>
        <time>2018-12-28T11:31:29Z</time>
      </trkpt>
      <trkpt lat="35.379560" lon="-111.580160">
        <ele>2221.955</ele>
        <time>2018-12-28T11:31:49Z</time>
      </trkpt>
      <trkpt lat="35.379230" lon="-111.579980">
        <ele>2220.964</ele>
        <time>2018-12-28T11:32:09Z</time>
      </trkpt>
      <trkpt lat="35.378970" lon="-111.579840">
        <ele>2219.857</ele>
        <time>2018-12-28T11:32:29Z</time>
      </trkpt>
      <trkpt lat="35.378460" lon="-111.579550">
        <ele>2219.300</ele>
        <time>2018-12-28T11:32:49Z</time>
      </trkpt>
      <trkpt lat="35.377650" lon="-111.579090">
        <ele>2219.220</ele>
        <time>2018-12-28T11:33:09Z</time>
      </trkpt>
      <trkpt lat="35.376990" lon="-111.578730">
        <ele>2218.908</ele>
        <time>2018-12-28T11:33:29Z</time>
      </trkpt>
      <trkpt lat="35.376760" lon="-111.578600">
        <ele>2218.938</ele>
        <time>2018-12-28T11:33:49Z</time>
      </trkpt>
      <trkpt lat="35.376370" lon="-111.578370">
        <ele>2219.786</ele>
        <time>2018-12-28T11:34:09Z</time>
      </trkpt>
      <trkpt lat="35.375980" lon="-111.578150">
        <ele>2220.411</ele>
        <time>2018-12-28T11:34:29Z</time>
      </trkpt>
      <trkpt lat="35.375580" lon="-111.577930">
        <ele>2220.012</ele>
        <time>2018-12-28T11:34:49Z</time>
      </trkpt>
      <trkpt lat="35.375140" lon="-111.577680">
        <ele>2218.387</ele>
        <time>2018-12-28T11:35:09Z</time>
      </trkpt>
      <trkpt lat="35.375080" lon="-111.577650">
        <ele>2218.155</ele>
        <time>2018-12-28T11:35:29Z</time>
      </trkpt>
      <trkpt lat="35.375010" lon="-111.577610">
        <ele>2217.867</ele>
        <time>2018-12-28T11:35:49Z</time>
      </trkpt>
      <trkpt lat="35.374170" lon="-111.577150">
        <ele>2216.056</ele>
        <time>2018-12-28T11:36:09Z</time>
      </trkpt>
      <trkpt lat="35.373490" lon="-111.576760">
        <ele>2214.777</ele>
        <time>2018-12-28T11:36:29Z</time>
      </trkpt>
      <trkpt lat="35.373140" lon="-111.576570">
        <ele>2213.861</ele>
        <time>2018-12-28T11:36:49Z</time>
      </trkpt>
      <trkpt lat="35.372780" lon="-111.576370">
        <ele>2212.927</ele>
        <time>2018-12-28T11:37:09Z</time>
      </trkpt>
      <trkpt lat="35.372210" lon="-111.576050">
        <ele>2212.208</ele>
        <time>2018-12-28T11:37:29Z</time>
      </trkpt>
      <trkpt lat="35.368880" lon="-111.574190">
        <ele>2206.360</ele>
        <time>2018-12-28T11:37:49Z</time>
      </trkpt>
      <trkpt lat="35.368110" lon="-111.573770">
        <ele>2205.778</ele>
        <time>2018-12-28T11:38:09Z</time>
      </trkpt>
      <trkpt lat="35.367900" lon="-111.573640">
        <ele>2205.543</ele>
        <time>2018-12-28T11:38:29Z</time>
      </trkpt>
      <trkpt lat="35.367520" lon="-111.573430">
        <ele>2204.684</ele>
        <time>2018-12-28T11:38:49Z</time>
      </trkpt>
      <trkpt lat="35.367000" lon="-111.573140">
        <ele>2200.939</ele>
        <time>2018-12-28T11:39:09Z</time>
      </trkpt>
      <trkpt lat="35.366510" lon="-111.572880">
        <ele>2196.647</ele>
        <time>2018-12-28T11:39:29Z</time>
      </trkpt>
      <trkpt lat="35.366140" lon="-111.572690">
        <ele>2196.429</ele>
        <time>2018-12-28T11:39:49Z</time>
      </trkpt>
      <trkpt lat="35.365940" lon="-111.572590">
        <ele>2197.358</ele>
        <time>2018-12-28T11:40:09Z</time>
      </trkpt>
      <trkpt lat="35.365700" lon="-111.572480">
        <ele>2197.658</ele>
        <time>2018-12-28T11:40:29Z</time>
      </trkpt>
      <trkpt lat="35.365470" lon="-111.572380">
        <ele>2198.152</ele>
        <time>2018-12-28T11:40:49Z</time>
      </trkpt>
      <trkpt lat="35.365200" lon="-111.572260">
        <ele>2198.917</ele>
        <time>2018-12-28T11:41:09Z</time>
      </trkpt>
      <trkpt lat="35.364990" lon="-111.572180">
        <ele>2199.708</ele>
        <time>2018-12-28T11:41:29Z</time>
      </trkpt>
      <trkpt lat="35.364590" lon="-111.572030">
        <ele>2201.488</ele>
        <time>2018-12-28T11:41:49Z</time>
      </trkpt>
      <trkpt lat="35.364140" lon="-111.571870">
        <ele>2203.586</ele>
        <time>2018-12-28T11:42:09Z</time>
      </trkpt>
      <trkpt lat="35.363780" lon="-111.571770">
        <ele>2205.081</ele>
        <time>2018-12-28T11:42:29Z</time>
      </trkpt>
      <trkpt lat="35.363510" lon="-111.571690">
        <ele>2205.642</ele>
        <time>2018-12-28T11:42:49Z</time>
      </trkpt>
      <trkpt lat="35.362950" lon="-111.571560">
        <ele>2205.797</ele>
        <time>2018-12-28T11:43:09Z</time>
      </trkpt>
      <trkpt lat="35.362610" lon="-111.571490">
        <ele>2205.495</ele>
        <time>2018-12-28T11:43:29Z</time>
      </trkpt>
      <trkpt lat="35.362200" lon="-111.571390">
        <ele>2205.847</ele>
        <time>2018-12-28T11:43:49Z</time>
      </trkpt>
      <trkpt lat="35.361770" lon="-111.571300">
        <ele>2206.486</ele>
        <time>2018-12-28T11:44:09Z</time>
      </trkpt>
      <trkpt lat="35.361330" lon="-111.571190">
        <ele>2208.622</ele>
        <time>2018-12-28T11:44:29Z</time>
      </trkpt>
      <trkpt lat="35.360900" lon="-111.571090">
        <ele>2208.462</ele>
        <time>2018-12-28T11:44:49Z</time>
      </trkpt>
      <trkpt lat="35.360780" lon="-111.571070">
        <ele>2207.908</ele>
        <time>2018-12-28T11:45:09Z</time>
      </trkpt>
      <trkpt lat="35.360560" lon="-111.571020">
        <ele>2206.808</ele>
        <time>2018-12-28T11:45:29Z</time>
      </trkpt>
      <trkpt lat="35.360340" lon="-111.570970">
        <ele>2205.685</ele>
        <time>2018-12-28T11:45:49Z</time>
      </trkpt>
      <trkpt lat="35.360010" lon="-111.570890">
        <ele>2204.613</ele>
        <time>2018-12-28T11:46:09Z</time>
      </trkpt>
      <trkpt lat="35.359800" lon="-111.570850">
        <ele>2204.228</ele>
        <time>2018-12-28T11:46:29Z</time>
      </trkpt>
      <trkpt lat="35.359470" lon="-111.570770">
        <ele>2203.729</ele>
        <time>2018-12-28T11:46:49Z</time>
      </trkpt>
      <trkpt lat="35.359160" lon="-111.570700">
        <ele>2203.234</ele>
        <time>2018-12-28T11:47:09Z</time>
      </trkpt>
      <trkpt lat="35.358730" lon="-111.570600">
        <ele>2202.892</ele>
        <time>2018-12-28T11:47:29Z</time>
      </trkpt>
      <trkpt lat="35.358300" lon="-111.570500">
        <ele>2202.674</ele>
        <time>2018-12-28T11:47:49Z</time>
      </trkpt>
      <trkpt lat="35.358140" lon="-111.570470">
        <ele>2202.743</ele>
        <time>2018-12-28T11:48:09Z</time>
      </trkpt>
      <trkpt lat="35.357760" lon="-111.570380">
        <ele>2203.659</ele>
        <time>2018-12-28T11:48:29Z</time>
      </trkpt>
      <trkpt lat="35.357440" lon="-111.570310">
        <ele>2204.203</ele>
        <time>2018-12-28T11:48:49Z</time>
      </trkpt>
      <trkpt lat="35.357010" lon="-111.570200">
        <ele>2203.023</ele>
        <time>2018-12-28T11:49:09Z</time>
      </trkpt>
      <trkpt lat="35.356480" lon="-111.570090">
        <ele>2201.108</ele>
        <time>2018-12-28T11:49:29Z</time>
      </trkpt>
      <trkpt lat="35.355500" lon="-111.569860">
        <ele>2198.818</ele>
        <time>2018-12-28T11:49:49Z</time>
      </trkpt>
      <trkpt lat="35.355070" lon="-111.569770">
        <ele>2197.976</ele>
        <time>2018-12-28T11:50:09Z</time>
      </trkpt>
      <trkpt lat="35.354770" lon="-111.569700">
        <ele>2197.641</ele>
        <time>2018-12-28T11:50:29Z</time>
      </trkpt>
      <trkpt lat="35.354310" lon="-111.569590">
        <ele>2197.372</ele>
        <time>2018-12-28T11:50:49Z</time>
      </trkpt>
      <trkpt lat="35.353710" lon="-111.569450">
        <ele>2196.857</ele>
        <time>2018-12-28T11:51:09Z</time>
      </trkpt>
      <trkpt lat="35.353320" lon="-111.569370">
        <ele>2195.235</ele>
        <time>2018-12-28T11:51:29Z</time>
      </trkpt>
      <trkpt lat="35.352990" lon="-111.569290">
        <ele>2194.187</ele>
        <time>2018-12-28T11:51:49Z</time>
      </trkpt>
      <trkpt lat="35.352860" lon="-111.569250">
        <ele>2193.866</ele>
        <time>2018-12-28T11:52:09Z</time>
      </trkpt>
      <trkpt lat="35.352740" lon="-111.569210">
        <ele>2193.686</ele>
        <time>2018-12-28T11:52:29Z</time>
      </trkpt>
      <trkpt lat="35.352630" lon="-111.569170">
        <ele>2193.560</ele>
        <time>2018-12-28T11:52:49Z</time>
      </trkpt>
      <trkpt lat="35.352500" lon="-111.569120">
        <ele>2193.526</ele>
        <time>2018-12-28T11:53:09Z</time>
      </trkpt>
      <trkpt lat="35.352370" lon="-111.569070">
        <ele>2193.608</ele>
        <time>2018-12-28T11:53:29Z</time>
      </trkpt>
      <trkpt lat="35.352200" lon="-111.568980">
        <ele>2193.921</ele>
        <time>2018-12-28T11:53:49Z</time>
      </trkpt>
      <trkpt lat="35.352090" lon="-111.568930">
        <ele>2194.159</ele>
        <time>2018-12-28T11:54:09Z</time>
      </trkpt>
      <trkpt lat="35.351990" lon="-111.568870">
        <ele>2194.284</ele>
        <time>2018-12-28T11:54:29Z</time>
      </trkpt>
      <trkpt lat="35.351750" lon="-111.568720">
        <ele>2194.215</ele>
        <time>2018-12-28T11:54:49Z</time>
      </trkpt>
      <trkpt lat="35.351570" lon="-111.568600">
        <ele>2194.130</ele>
        <time>2018-12-28T11:55:09Z</time>
      </trkpt>
      <trkpt lat="35.351450" lon="-111.568500">
        <ele>2194.098</ele>
        <time>2018-12-28T11:55:29Z</time>
      </trkpt>
      <trkpt lat="35.351350" lon="-111.568420">
        <ele>2194.010</ele>
        <time>2018-12-28T11:55:49Z</time>
      </trkpt>
      <trkpt lat="35.351100" lon="-111.568190">
        <ele>2193.349</ele>
        <time>2018-12-28T11:56:09Z</time>
      </trkpt>
      <trkpt lat="35.350970" lon="-111.568060">
        <ele>2192.536</ele>
        <time>2018-12-28T11:56:29Z</time>
      </trkpt>
      <trkpt lat="35.350890" lon="-111.567970">
        <ele>2191.617</ele>
        <time>2018-12-28T11:56:49Z</time>
      </trkpt>
      <trkpt lat="35.350770" lon="-111.567840">
        <ele>2190.418</ele>
        <time>2018-12-28T11:57:09Z</time>
      </trkpt>
      <trkpt lat="35.350660" lon="-111.567710">
        <ele>2189.308</ele>
        <time>2018-12-28T11:57:29Z</time>
      </trkpt>
      <trkpt lat="35.350520" lon="-111.567510">
        <ele>2187.996</ele>
        <time>2018-12-28T11:57:49Z</time>
      </trkpt>
      <trkpt lat="35.350420" lon="-111.567360">
        <ele>2187.164</ele>
        <time>2018-12-28T11:58:09Z</time>
      </trkpt>
      <trkpt lat="35.350270" lon="-111.567130">
        <ele>2186.189</ele>
        <time>2018-12-28T11:58:29Z</time>
      </trkpt>
      <trkpt lat="35.350190" lon="-111.566980">
        <ele>2185.640</ele>
        <time>2018-12-28T11:58:49Z</time>
      </trkpt>
      <trkpt lat="35.350110" lon="-111.566850">
        <ele>2185.135</ele>
        <time>2018-12-28T11:59:09Z</time>
      </trkpt>
      <trkpt lat="35.349980" lon="-111.566600">
        <ele>2183.733</ele>
        <time>2018-12-28T11:59:29Z</time>
      </trkpt>
      <trkpt lat="35.349820" lon="-111.566280">
        <ele>2180.775</ele>
        <time>2018-12-28T11:59:49Z</time>
      </trkpt>
      <trkpt lat="35.349650" lon="-111.565930">
        <ele>2179.954</ele>
        <time>2018-12-28T12:00:09Z</time>
      </trkpt>
      <trkpt lat="35.349490" lon="-111.565610">
        <ele>2178.763</ele>
        <time>2018-12-28T12:00:29Z</time>
      </trkpt>
      <trkpt lat="35.349310" lon="-111.565250">
        <ele>2175.444</ele>
        <time>2018-12-28T12:00:49Z</time>
      </trkpt>
      <trkpt lat="35.349210" lon="-111.565060">
        <ele>2171.618</ele>
        <time>2018-12-28T12:01:09Z</time>
      </trkpt>
      <trkpt lat="35.349090" lon="-111.564840">
        <ele>2166.908</ele>
        <time>2018-12-28T12:01:29Z</time>
      </trkpt>
      <trkpt lat="35.348910" lon="-111.564560">
        <ele>2163.539</ele>
        <time>2018-12-28T12:01:49Z</time>
      </trkpt>
      <trkpt lat="35.348730" lon="-111.564310">
        <ele>2161.937</ele>
        <time>2018-12-28T12:02:09Z</time>
      </trkpt>
      <trkpt lat="35.348540" lon="-111.564050">
        <ele>2161.512</ele>
        <time>2018-12-28T12:02:29Z</time>
      </trkpt>
      <trkpt lat="35.348320" lon="-111.563810">
        <ele>2160.933</ele>
        <time>2018-12-28T12:02:49Z</time>
      </trkpt>
      <trkpt lat="35.348170" lon="-111.563660">
        <ele>2160.738</ele>
        <time>2018-12-28T12:03:09Z</time>
      </trkpt>
      <trkpt lat="35.348050" lon="-111.563540">
        <ele>2160.596</ele>
        <time>2018-12-28T12:03:29Z</time>
      </trkpt>
      <trkpt lat="35.347930" lon="-111.563440">
        <ele>2160.198</ele>
        <time>2018-12-28T12:03:49Z</time>
      </trkpt>
      <trkpt lat="35.347760" lon="-111.563310">
        <ele>2158.937</ele>
        <time>2018-12-28T12:04:09Z</time>
      </trkpt>
      <trkpt lat="35.347630" lon="-111.563210">
        <ele>2158.019</ele>
        <time>2018-12-28T12:04:29Z</time>
      </trkpt>
      <trkpt lat="35.347480" lon="-111.563120">
        <ele>2157.409</ele>
        <time>2018-12-28T12:04:49Z</time>
      </trkpt>
      <trkpt lat="35.347230" lon="-111.562960">
        <ele>2156.719</ele>
        <time>2018-12-28T12:05:09Z</time>
      </trkpt>
      <trkpt lat="35.346520" lon="-111.562560">
        <ele>2149.608</ele>
        <time>2018-12-28T12:05:29Z</time>
      </trkpt>
      <trkpt lat="35.346350" lon="-111.562450">
        <ele>2148.784</ele>
        <time>2018-12-28T12:05:49Z</time>
      </trkpt>
      <trkpt lat="35.345980" lon="-111.562240">
        <ele>2146.632</ele>
        <time>2018-12-28T12:06:09Z</time>
      </trkpt>
      <trkpt lat="35.345390" lon="-111.561900">
        <ele>2145.197</ele>
        <time>2018-12-28T12:06:29Z</time>
      </trkpt>
      <trkpt lat="35.344710" lon="-111.561510">
        <ele>2141.828</ele>
        <time>2018-12-28T12:06:49Z</time>
      </trkpt>
      <trkpt lat="35.344440" lon="-111.561340">
        <ele>2139.693</ele>
        <time>2018-12-28T12:07:09Z</time>
      </trkpt>
      <trkpt lat="35.344110" lon="-111.561130">
        <ele>2136.611</ele>
        <time>2018-12-28T12:07:29Z</time>
      </trkpt>
      <trkpt lat="35.343580" lon="-111.560750">
        <ele>2134.613</ele>
        <time>2018-12-28T12:07:49Z</time>
      </trkpt>
      <trkpt lat="35.343480" lon="-111.560680">
        <ele>2134.242</ele>
        <time>2018-12-28T12:08:09Z</time>
      </trkpt>
      <trkpt lat="35.342950" lon="-111.560250">
        <ele>2132.466</ele>
        <time>2018-12-28T12:08:29Z</time>
      </trkpt>
      <trkpt lat="35.342700" lon="-111.560030">
        <ele>2131.329</ele>
        <time>2018-12-28T12:08:49Z</time>
      </trkpt>
      <trkpt lat="35.342540" lon="-111.559880">
        <ele>2130.621</ele>
        <time>2018-12-28T12:09:09Z</time>
      </trkpt>
      <trkpt lat="35.342380" lon="-111.559730">
        <ele>2129.908</ele>
        <time>2018-12-28T12:09:29Z</time>
      </trkpt>
      <trkpt lat="35.342280" lon="-111.559630">
        <ele>2129.469</ele>
        <time>2018-12-28T12:09:49Z</time>
      </trkpt>
      <trkpt lat="35.342100" lon="-111.559450">
        <ele>2128.727</ele>
        <time>2018-12-28T12:10:09Z</time>
      </trkpt>
      <trkpt lat="35.341860" lon="-111.559190">
        <ele>2127.382</ele>
        <time>2018-12-28T12:10:29Z</time>
      </trkpt>
      <trkpt lat="35.341560" lon="-111.558850">
        <ele>2125.233</ele>
        <time>2018-12-28T12:10:49Z</time>
      </trkpt>
      <trkpt lat="35.341390" lon="-111.558650">
        <ele>2124.088</ele>
        <time>2018-12-28T12:11:09Z</time>
      </trkpt>
      <trkpt lat="35.341250" lon="-111.558490">
        <ele>2123.366</ele>
        <time>2018-12-28T12:11:29Z</time>
      </trkpt>
      <trkpt lat="35.341120" lon="-111.558320">
        <ele>2122.778</ele>
        <time>2018-12-28T12:11:49Z</time>
      </trkpt>
      <trkpt lat="35.340920" lon="-111.558070">
        <ele>2121.927</ele>
        <time>2018-12-28T12:12:09Z</time>
      </trkpt>
      <trkpt lat="35.340710" lon="-111.557790">
        <ele>2121.087</ele>
        <time>2018-12-28T12:12:29Z</time>
      </trkpt>
      <trkpt lat="35.340690" lon="-111.557690">
        <ele>2120.942</ele>
        <time>2018-12-28T12:12:49Z</time>
      </trkpt>
      <trkpt lat="35.340270" lon="-111.557170">
        <ele>2113.826</ele>
        <time>2018-12-28T12:13:09Z</time>
      </trkpt>
      <trkpt lat="35.339820" lon="-111.556580">
        <ele>2108.908</ele>
        <time>2018-12-28T12:13:29Z</time>
      </trkpt>
      <trkpt lat="35.338190" lon="-111.554510">
        <ele>2099.021</ele>
        <time>2018-12-28T12:13:49Z</time>
      </trkpt>
      <trkpt lat="35.337840" lon="-111.554070">
        <ele>2097.529</ele>
        <time>2018-12-28T12:14:09Z</time>
      </trkpt>
      <trkpt lat="35.337530" lon="-111.553660">
        <ele>2096.894</ele>
        <time>2018-12-28T12:14:29Z</time>
      </trkpt>
      <trkpt lat="35.337440" lon="-111.553550">
        <ele>2096.635</ele>
        <time>2018-12-28T12:14:49Z</time>
      </trkpt>
      <trkpt lat="35.335670" lon="-111.551310">
        <ele>2091.570</ele>
        <time>2018-12-28T12:15:09Z</time>
      </trkpt>
      <trkpt lat="35.334990" lon="-111.550430">
        <ele>2089.058</ele>
        <time>2018-12-28T12:15:29Z</time>
      </trkpt>
      <trkpt lat="35.334700" lon="-111.550070">
        <ele>2088.080</ele>
        <time>2018-12-28T12:15:49Z</time>
      </trkpt>
      <trkpt lat="35.334520" lon="-111.549850">
        <ele>2087.369</ele>
        <time>2018-12-28T12:16:09Z</time>
      </trkpt>
      <trkpt lat="35.334360" lon="-111.549650">
        <ele>2086.583</ele>
        <time>2018-12-28T12:16:29Z</time>
      </trkpt>
      <trkpt lat="35.334180" lon="-111.549450">
        <ele>2086.125</ele>
        <time>2018-12-28T12:16:49Z</time>
      </trkpt>
      <trkpt lat="35.333940" lon="-111.549190">
        <ele>2085.617</ele>
        <time>2018-12-28T12:17:09Z</time>
      </trkpt>
      <trkpt lat="35.333690" lon="-111.548950">
        <ele>2085.008</ele>
        <time>2018-12-28T12:17:29Z</time>
      </trkpt>
      <trkpt lat="35.333580" lon="-111.548850">
        <ele>2084.771</ele>
        <time>2018-12-28T12:17:49Z</time>
      </trkpt>
      <trkpt lat="35.333500" lon="-111.548770">
        <ele>2084.549</ele>
        <time>2018-12-28T12:18:09Z</time>
      </trkpt>
      <trkpt lat="35.333320" lon="-111.548620">
        <ele>2084.294</ele>
        <time>2018-12-28T12:18:29Z</time>
      </trkpt>
      <trkpt lat="35.333160" lon="-111.548490">
        <ele>2083.915</ele>
        <time>2018-12-28T12:18:49Z</time>
      </trkpt>
      <trkpt lat="35.333050" lon="-111.548400">
        <ele>2083.750</ele>
        <time>2018-12-28T12:19:09Z</time>
      </trkpt>
      <trkpt lat="35.332920" lon="-111.548310">
        <ele>2083.448</ele>
        <time>2018-12-28T12:19:29Z</time>
      </trkpt>
      <trkpt lat="35.332700" lon="-111.548150">
        <ele>2083.040</ele>
        <time>2018-12-28T12:19:49Z</time>
      </trkpt>
      <trkpt lat="35.332510" lon="-111.548030">
        <ele>2082.659</ele>
        <time>2018-12-28T12:20:09Z</time>
      </trkpt>
      <trkpt lat="35.332300" lon="-111.547900">
        <ele>2082.194</ele>
        <time>2018-12-28T12:20:29Z</time>
      </trkpt>
      <trkpt lat="35.332040" lon="-111.547740">
        <ele>2081.357</ele>
        <time>2018-12-28T12:20:49Z</time>
      </trkpt>
      <trkpt lat="35.331720" lon="-111.547540">
        <ele>2080.622</ele>
        <time>2018-12-28T12:21:09Z</time>
      </trkpt>
      <trkpt lat="35.331370" lon="-111.547330">
        <ele>2079.708</ele>
        <time>2018-12-28T12:21:29Z</time>
      </trkpt>
      <trkpt lat="35.331000" lon="-111.547100">
        <ele>2078.682</ele>
        <time>2018-12-28T12:21:49Z</time>
      </trkpt>
      <trkpt lat="35.330700" lon="-111.546920">
        <ele>2077.960</ele>
        <time>2018-12-28T12:22:09Z</time>
      </trkpt>
      <trkpt lat="35.330430" lon="-111.546760">
        <ele>2077.095</ele>
        <time>2018-12-28T12:22:29Z</time>
      </trkpt>
      <trkpt lat="35.330120" lon="-111.546570">
        <ele>2076.176</ele>
        <time>2018-12-28T12:22:49Z</time>
      </trkpt>
      <trkpt lat="35.329800" lon="-111.546380">
        <ele>2075.481</ele>
        <time>2018-12-28T12:23:09Z</time>
      </trkpt>
      <trkpt lat="35.329540" lon="-111.546220">
        <ele>2074.839</ele>
        <time>2018-12-28T12:23:29Z</time>
      </trkpt>
      <trkpt lat="35.329340" lon="-111.546100">
        <ele>2074.411</ele>
        <time>2018-12-28T12:23:49Z</time>
      </trkpt>
      <trkpt lat="35.329070" lon="-111.545930">
        <ele>2073.750</ele>
        <time>2018-12-28T12:24:09Z</time>
      </trkpt>
      <trkpt lat="35.328710" lon="-111.545720">
        <ele>2072.178</ele>
        <time>2018-12-28T12:24:29Z</time>
      </trkpt>
      <trkpt lat="35.328430" lon="-111.545550">
        <ele>2070.733</ele>
        <time>2018-12-28T12:24:49Z</time>
      </trkpt>
      <trkpt lat="35.327840" lon="-111.545190">
        <ele>2068.226</ele>
        <time>2018-12-28T12:25:09Z</time>
      </trkpt>
      <trkpt lat="35.325710" lon="-111.543900">
        <ele>2059.308</ele>
        <time>2018-12-28T12:25:29Z</time>
      </trkpt>
      <trkpt lat="35.324930" lon="-111.543430">
        <ele>2057.420</ele>
        <time>2018-12-28T12:25:49Z</time>
      </trkpt>
      <trkpt lat="35.324750" lon="-111.543330">
        <ele>2056.918</ele>
        <time>2018-12-28T12:26:09Z</time>
      </trkpt>
      <trkpt lat="35.324570" lon="-111.543230">
        <ele>2056.643</ele>
        <time>2018-12-28T12:26:29Z</time>
      </trkpt>
      <trkpt lat="35.324460" lon="-111.543180">
        <ele>2056.394</ele>
        <time>2018-12-28T12:26:49Z</time>
      </trkpt>
      <trkpt lat="35.324300" lon="-111.543120">
        <ele>2056.149</ele>
        <time>2018-12-28T12:27:09Z</time>
      </trkpt>
      <trkpt lat="35.324160" lon="-111.543060">
        <ele>2055.837</ele>
        <time>2018-12-28T12:27:29Z</time>
      </trkpt>
      <trkpt lat="35.324010" lon="-111.543000">
        <ele>2055.599</ele>
        <time>2018-12-28T12:27:49Z</time>
      </trkpt>
      <trkpt lat="35.323820" lon="-111.542940">
        <ele>2055.388</ele>
        <time>2018-12-28T12:28:09Z</time>
      </trkpt>
      <trkpt lat="35.323600" lon="-111.542880">
        <ele>2054.967</ele>
        <time>2018-12-28T12:28:29Z</time>
      </trkpt>
      <trkpt lat="35.323430" lon="-111.542850">
        <ele>2054.781</ele>
        <time>2018-12-28T12:28:49Z</time>
      </trkpt>
      <trkpt lat="35.323270" lon="-111.542820">
        <ele>2054.519</ele>
        <time>2018-12-28T12:29:09Z</time>
      </trkpt>
      <trkpt lat="35.323110" lon="-111.542790">
        <ele>2054.208</ele>
        <time>2018-12-28T12:29:29Z</time>
      </trkpt>
      <trkpt lat="35.322840" lon="-111.542770">
        <ele>2053.929</ele>
        <time>2018-12-28T12:29:49Z</time>
      </trkpt>
      <trkpt lat="35.322520" lon="-111.542750">
        <ele>2053.517</ele>
        <time>2018-12-28T12:30:09Z</time>
      </trkpt>
      <trkpt lat="35.322070" lon="-111.542750">
        <ele>2053.012</ele>
        <time>2018-12-28T12:30:29Z</time>
      </trkpt>
      <trkpt lat="35.321310" lon="-111.542760">
        <ele>2052.163</ele>
        <time>2018-12-28T12:30:49Z</time>
      </trkpt>
      <trkpt lat="35.320490" lon="-111.542760">
        <ele>2051.238</ele>
        <time>2018-12-28T12:31:09Z</time>
      </trkpt>
      <trkpt lat="35.320000" lon="-111.542770">
        <ele>2050.776</ele>
        <time>2018-12-28T12:31:29Z</time>
      </trkpt>
      <trkpt lat="35.318640" lon="-111.542770">
        <ele>2048.678</ele>
        <time>2018-12-28T12:31:49Z</time>
      </trkpt>
      <trkpt lat="35.316990" lon="-111.542770">
        <ele>2046.817</ele>
        <time>2018-12-28T12:32:09Z</time>
      </trkpt>
      <trkpt lat="35.315890" lon="-111.542750">
        <ele>2046.191</ele>
        <time>2018-12-28T12:32:29Z</time>
      </trkpt>
      <trkpt lat="35.315210" lon="-111.542730">
        <ele>2045.681</ele>
        <time>2018-12-28T12:32:49Z</time>
      </trkpt>
      <trkpt lat="35.314050" lon="-111.542660">
        <ele>2045.119</ele>
        <time>2018-12-28T12:33:09Z</time>
      </trkpt>
      <trkpt lat="35.313380" lon="-111.542640">
        <ele>2044.908</ele>
        <time>2018-12-28T12:33:29Z</time>
      </trkpt>
      <trkpt lat="35.313170" lon="-111.542640">
        <ele>2044.962</ele>
        <time>2018-12-28T12:33:49Z</time>
      </trkpt>
      <trkpt lat="35.311330" lon="-111.542630">
        <ele>2044.590</ele>
        <time>2018-12-28T12:34:09Z</time>
      </trkpt>
      <trkpt lat="35.310750" lon="-111.542640">
        <ele>2044.735</ele>
        <time>2018-12-28T12:34:29Z</time>
      </trkpt>
      <trkpt lat="35.309990" lon="-111.542650">
        <ele>2044.696</ele>
        <time>2018-12-28T12:34:49Z</time>
      </trkpt>
      <trkpt lat="35.309580" lon="-111.542650">
        <ele>2044.711</ele>
        <time>2018-12-28T12:35:09Z</time>
      </trkpt>
      <trkpt lat="35.308510" lon="-111.542660">
        <ele>2045.339</ele>
        <time>2018-12-28T12:35:29Z</time>
      </trkpt>
      <trkpt lat="35.307650" lon="-111.542660">
        <ele>2046.051</ele>
        <time>2018-12-28T12:35:49Z</time>
      </trkpt>
      <trkpt lat="35.306810" lon="-111.542680">
        <ele>2046.850</ele>
        <time>2018-12-28T12:36:09Z</time>
      </trkpt>
      <trkpt lat="35.306440" lon="-111.542680">
        <ele>2047.221</ele>
        <time>2018-12-28T12:36:29Z</time>
      </trkpt>
      <trkpt lat="35.306070" lon="-111.542690">
        <ele>2047.741</ele>
        <time>2018-12-28T12:36:49Z</time>
      </trkpt>
      <trkpt lat="35.305370" lon="-111.542710">
        <ele>2048.405</ele>
        <time>2018-12-28T12:37:09Z</time>
      </trkpt>
      <trkpt lat="35.304620" lon="-111.542730">
        <ele>2048.908</ele>
        <time>2018-12-28T12:37:29Z</time>
      </trkpt>
      <trkpt lat="35.303680" lon="-111.542770">
        <ele>2050.445</ele>
        <time>2018-12-28T12:37:49Z</time>
      </trkpt>
      <trkpt lat="35.303280" lon="-111.542780">
        <ele>2050.993</ele>
        <time>2018-12-28T12:38:09Z</time>
      </trkpt>
      <trkpt lat="35.303000" lon="-111.542780">
        <ele>2051.268</ele>
        <time>2018-12-28T12:38:29Z</time>
      </trkpt>
      <trkpt lat="35.302650" lon="-111.542790">
        <ele>2051.559</ele>
        <time>2018-12-28T12:38:49Z</time>
      </trkpt>
      <trkpt lat="35.302200" lon="-111.542810">
        <ele>2052.084</ele>
        <time>2018-12-28T12:39:09Z</time>
      </trkpt>
      <trkpt lat="35.301980" lon="-111.542810">
        <ele>2052.172</ele>
        <time>2018-12-28T12:39:29Z</time>
      </trkpt>
      <trkpt lat="35.301770" lon="-111.542800">
        <ele>2052.244</ele>
        <time>2018-12-28T12:39:49Z</time>
      </trkpt>
      <trkpt lat="35.301360" lon="-111.542790">
        <ele>2052.433</ele>
        <time>2018-12-28T12:40:09Z</time>
      </trkpt>
      <trkpt lat="35.301070" lon="-111.542780">
        <ele>2052.597</ele>
        <time>2018-12-28T12:40:29Z</time>
      </trkpt>
      <trkpt lat="35.300210" lon="-111.542760">
        <ele>2053.023</ele>
        <time>2018-12-28T12:40:49Z</time>
      </trkpt>
      <trkpt lat="35.299450" lon="-111.542740">
        <ele>2053.625</ele>
        <time>2018-12-28T12:41:09Z</time>
      </trkpt>
      <trkpt lat="35.298500" lon="-111.542710">
        <ele>2054.108</ele>
        <time>2018-12-28T12:41:29Z</time>
      </trkpt>
      <trkpt lat="35.297880" lon="-111.542680">
        <ele>2054.712</ele>
        <time>2018-12-28T12:41:49Z</time>
      </trkpt>
      <trkpt lat="35.296180" lon="-111.542630">
        <ele>2055.480</ele>
        <time>2018-12-28T12:42:09Z</time>
      </trkpt>
      <trkpt lat="35.294940" lon="-111.542580">
        <ele>2055.445</ele>
        <time>2018-12-28T12:42:29Z</time>
      </trkpt>
      <trkpt lat="35.294530" lon="-111.542570">
        <ele>2055.496</ele>
        <time>2018-12-28T12:42:49Z</time>
      </trkpt>
      <trkpt lat="35.293710" lon="-111.542540">
        <ele>2055.491</ele>
        <time>2018-12-28T12:43:09Z</time>
      </trkpt>
      <trkpt lat="35.291690" lon="-111.542470">
        <ele>2055.119</ele>
        <time>2018-12-28T12:43:29Z</time>
      </trkpt>
      <trkpt lat="35.291340" lon="-111.542460">
        <ele>2055.131</ele>
        <time>2018-12-28T12:43:49Z</time>
      </trkpt>
      <trkpt lat="35.290400" lon="-111.542420">
        <ele>2055.310</ele>
        <time>2018-12-28T12:44:09Z</time>
      </trkpt>
      <trkpt lat="35.289410" lon="-111.542390">
        <ele>2055.449</ele>
        <time>2018-12-28T12:44:29Z</time>
      </trkpt>
      <trkpt lat="35.289130" lon="-111.542370">
        <ele>2055.402</ele>
        <time>2018-12-28T12:44:49Z</time>
      </trkpt>
      <trkpt lat="35.287470" lon="-111.542320">
        <ele>2055.322</ele>
        <time>2018-12-28T12:45:09Z</time>
      </trkpt>
      <trkpt lat="35.286930" lon="-111.542320">
        <ele>2055.608</ele>
        <time>2018-12-28T12:45:29Z</time>
      </trkpt>
      <trkpt lat="35.286910" lon="-111.542320">
        <ele>2055.647</ele>
        <time>2018-12-28T12:45:49Z</time>
      </trkpt>
      <trkpt lat="35.285610" lon="-111.542260">
        <ele>2055.425</ele>
        <time>2018-12-28T12:46:09Z</time>
      </trkpt>
      <trkpt lat="35.284630" lon="-111.542220">
        <ele>2055.750</ele>
        <time>2018-12-28T12:46:29Z</time>
      </trkpt>
      <trkpt lat="35.284500" lon="-111.542220">
        <ele>2055.871</ele>
        <time>2018-12-28T12:46:49Z</time>
      </trkpt>
      <trkpt lat="35.284080" lon="-111.542200">
        <ele>2056.286</ele>
        <time>2018-12-28T12:47:09Z</time>
      </trkpt>
      <trkpt lat="35.283870" lon="-111.542200">
        <ele>2056.564</ele>
        <time>2018-12-28T12:47:29Z</time>
      </trkpt>
      <trkpt lat="35.283520" lon="-111.542210">
        <ele>2056.916</ele>
        <time>2018-12-28T12:47:49Z</time>
      </trkpt>
      <trkpt lat="35.283170" lon="-111.542220">
        <ele>2057.265</ele>
        <time>2018-12-28T12:48:09Z</time>
      </trkpt>
      <trkpt lat="35.282690" lon="-111.542260">
        <ele>2057.618</ele>
        <time>2018-12-28T12:48:29Z</time>
      </trkpt>
      <trkpt lat="35.281120" lon="-111.542460">
        <ele>2057.398</ele>
        <time>2018-12-28T12:48:49Z</time>
      </trkpt>
      <trkpt lat="35.280000" lon="-111.542620">
        <ele>2055.917</ele>
        <time>2018-12-28T12:49:09Z</time>
      </trkpt>
      <trkpt lat="35.278870" lon="-111.542780">
        <ele>2055.708</ele>
        <time>2018-12-28T12:49:29Z</time>
      </trkpt>
      <trkpt lat="35.277700" lon="-111.542960">
        <ele>2054.294</ele>
        <time>2018-12-28T12:49:49Z</time>
      </trkpt>
      <trkpt lat="35.277040" lon="-111.543050">
        <ele>2053.662</ele>
        <time>2018-12-28T12:50:09Z</time>
      </trkpt>
      <trkpt lat="35.276490" lon="-111.543130">
        <ele>2053.157</ele>
        <time>2018-12-28T12:50:29Z</time>
      </trkpt>
      <trkpt lat="35.275360" lon="-111.543300">
        <ele>2053.478</ele>
        <time>2018-12-28T12:50:49Z</time>
      </trkpt>
      <trkpt lat="35.274850" lon="-111.543370">
        <ele>2053.633</ele>
        <time>2018-12-28T12:51:09Z</time>
      </trkpt>
      <trkpt lat="35.274540" lon="-111.543430">
        <ele>2053.841</ele>
        <time>2018-12-28T12:51:29Z</time>
      </trkpt>
      <trkpt lat="35.274300" lon="-111.543490">
        <ele>2054.053</ele>
        <time>2018-12-28T12:51:49Z</time>
      </trkpt>
      <trkpt lat="35.273750" lon="-111.543630">
        <ele>2054.232</ele>
        <time>2018-12-28T12:52:09Z</time>
      </trkpt>
      <trkpt lat="35.273440" lon="-111.543730">
        <ele>2054.344</ele>
        <time>2018-12-28T12:52:29Z</time>
      </trkpt>
      <trkpt lat="35.273210" lon="-111.543830">
        <ele>2054.305</ele>
        <time>2018-12-28T12:52:49Z</time>
      </trkpt>
      <trkpt lat="35.272910" lon="-111.543960">
        <ele>2054.515</ele>
        <time>2018-12-28T12:53:09Z</time>
      </trkpt>
      <trkpt lat="35.272370" lon="-111.544200">
        <ele>2054.308</ele>
        <time>2018-12-28T12:53:29Z</time>
      </trkpt>
      <trkpt lat="35.271670" lon="-111.544520">
        <ele>2053.477</ele>
        <time>2018-12-28T12:53:49Z</time>
      </trkpt>
      <trkpt lat="35.270840" lon="-111.544900">
        <ele>2050.995</ele>
        <time>2018-12-28T12:54:09Z</time>
      </trkpt>
      <trkpt lat="35.270510" lon="-111.545050">
        <ele>2049.620</ele>
        <time>2018-12-28T12:54:29Z</time>
      </trkpt>
      <trkpt lat="35.270430" lon="-111.545090">
        <ele>2049.431</ele>
        <time>2018-12-28T12:54:49Z</time>
      </trkpt>
      <trkpt lat="35.270220" lon="-111.545180">
        <ele>2049.226</ele>
        <time>2018-12-28T12:55:09Z</time>
      </trkpt>
      <trkpt lat="35.269820" lon="-111.545380">
        <ele>2049.124</ele>
        <time>2018-12-28T12:55:29Z</time>
      </trkpt>
      <trkpt lat="35.269350" lon="-111.545590">
        <ele>2048.576</ele>
        <time>2018-12-28T12:55:49Z</time>
      </trkpt>
      <trkpt lat="35.269210" lon="-111.545650">
        <ele>2048.245</ele>
        <time>2018-12-28T12:56:09Z</time>
      </trkpt>
      <trkpt lat="35.268600" lon="-111.545940">
        <ele>2046.593</ele>
        <time>2018-12-28T12:56:29Z</time>
      </trkpt>
      <trkpt lat="35.268270" lon="-111.546100">
        <ele>2046.065</ele>
        <time>2018-12-28T12:56:49Z</time>
      </trkpt>
      <trkpt lat="35.267600" lon="-111.546400">
        <ele>2045.321</ele>
        <time>2018-12-28T12:57:09Z</time>
      </trkpt>
      <trkpt lat="35.266980" lon="-111.546690">
        <ele>2047.408</ele>
        <time>2018-12-28T12:57:29Z</time>
      </trkpt>
      <trkpt lat="35.266750" lon="-111.546800">
        <ele>2048.052</ele>
        <time>2018-12-28T12:57:49Z</time>
      </trkpt>
      <trkpt lat="35.265550" lon="-111.547350">
        <ele>2048.530</ele>
        <time>2018-12-28T12:58:09Z</time>
      </trkpt>
      <trkpt lat="35.265200" lon="-111.547520">
        <ele>2048.535</ele>
        <time>2018-12-28T12:58:29Z</time>
      </trkpt>
      <trkpt lat="35.265030" lon="-111.547590">
        <ele>2048.596</ele>
        <time>2018-12-28T12:58:49Z</time>
      </trkpt>
      <trkpt lat="35.262970" lon="-111.548550">
        <ele>2054.181</ele>
        <time>2018-12-28T12:59:09Z</time>
      </trkpt>
      <trkpt lat="35.262640" lon="-111.548710">
        <ele>2054.169</ele>
        <time>2018-12-28T12:59:29Z</time>
      </trkpt>
      <trkpt lat="35.262540" lon="-111.548760">
        <ele>2054.271</ele>
        <time>2018-12-28T12:59:49Z</time>
      </trkpt>
      <trkpt lat="35.262530" lon="-111.548770">
        <ele>2054.340</ele>
        <time>2018-12-28T13:00:09Z</time>
      </trkpt>
      <trkpt lat="35.262200" lon="-111.548960">
        <ele>2055.413</ele>
        <time>2018-12-28T13:00:29Z</time>
      </trkpt>
      <trkpt lat="35.261750" lon="-111.549240">
        <ele>2057.843</ele>
        <time>2018-12-28T13:00:49Z</time>
      </trkpt>
      <trkpt lat="35.261620" lon="-111.549330">
        <ele>2057.807</ele>
        <time>2018-12-28T13:01:09Z</time>
      </trkpt>
      <trkpt lat="35.261400" lon="-111.549510">
        <ele>2059.008</ele>
        <time>2018-12-28T13:01:29Z</time>
      </trkpt>
      <trkpt lat="35.261000" lon="-111.549860">
        <ele>2059.654</ele>
        <time>2018-12-28T13:01:49Z</time>
      </trkpt>
      <trkpt lat="35.260570" lon="-111.550250">
        <ele>2060.942</ele>
        <time>2018-12-28T13:02:09Z</time>
      </trkpt>
      <trkpt lat="35.258630" lon="-111.552020">
        <ele>2072.667</ele>
        <time>2018-12-28T13:02:29Z</time>
      </trkpt>
      <trkpt lat="35.256620" lon="-111.553860">
        <ele>2074.428</ele>
        <time>2018-12-28T13:02:49Z</time>
      </trkpt>
      <trkpt lat="35.255570" lon="-111.554800">
        <ele>2080.393</ele>
        <time>2018-12-28T13:03:09Z</time>
      </trkpt>
      <trkpt lat="35.255360" lon="-111.555020">
        <ele>2081.411</ele>
        <time>2018-12-28T13:03:29Z</time>
      </trkpt>
      <trkpt lat="35.254990" lon="-111.555340">
        <ele>2082.493</ele>
        <time>2018-12-28T13:03:49Z</time>
      </trkpt>
      <trkpt lat="35.254730" lon="-111.555570">
        <ele>2082.782</ele>
        <time>2018-12-28T13:04:09Z</time>
      </trkpt>
      <trkpt lat="35.254580" lon="-111.555720">
        <ele>2082.996</ele>
        <time>2018-12-28T13:04:29Z</time>
      </trkpt>
      <trkpt lat="35.254210" lon="-111.556060">
        <ele>2083.931</ele>
        <time>2018-12-28T13:04:49Z</time>
      </trkpt>
      <trkpt lat="35.253920" lon="-111.556310">
        <ele>2084.924</ele>
        <time>2018-12-28T13:05:09Z</time>
      </trkpt>
      <trkpt lat="35.253510" lon="-111.556680">
        <ele>2085.508</ele>
        <time>2018-12-28T13:05:29Z</time>
      </trkpt>
      <trkpt lat="35.253320" lon="-111.556860">
        <ele>2085.282</ele>
        <time>2018-12-28T13:05:49Z</time>
      </trkpt>
      <trkpt lat="35.253030" lon="-111.557110">
        <ele>2085.260</ele>
        <time>2018-12-28T13:06:09Z</time>
      </trkpt>
      <trkpt lat="35.252720" lon="-111.557390">
        <ele>2085.865</ele>
        <time>2018-12-28T13:06:29Z</time>
      </trkpt>
      <trkpt lat="35.252650" lon="-111.557450">
        <ele>2085.976</ele>
        <time>2018-12-28T13:06:49Z</time>
      </trkpt>
      <trkpt lat="35.252060" lon="-111.557980">
        <ele>2088.141</ele>
        <time>2018-12-28T13:07:09Z</time>
      </trkpt>
      <trkpt lat="35.251150" lon="-111.558780">
        <ele>2091.019</ele>
        <time>2018-12-28T13:07:29Z</time>
      </trkpt>
      <trkpt lat="35.249750" lon="-111.560040">
        <ele>2094.461</ele>
        <time>2018-12-28T13:07:49Z</time>
      </trkpt>
      <trkpt lat="35.248930" lon="-111.560830">
        <ele>2094.890</ele>
        <time>2018-12-28T13:08:09Z</time>
      </trkpt>
      <trkpt lat="35.248010" lon="-111.561820">
        <ele>2095.847</ele>
        <time>2018-12-28T13:08:29Z</time>
      </trkpt>
      <trkpt lat="35.246690" lon="-111.563230">
        <ele>2102.829</ele>
        <time>2018-12-28T13:08:49Z</time>
      </trkpt>
      <trkpt lat="35.245880" lon="-111.564110">
        <ele>2106.121</ele>
        <time>2018-12-28T13:09:09Z</time>
      </trkpt>
      <trkpt lat="35.245720" lon="-111.564280">
        <ele>2107.108</ele>
        <time>2018-12-28T13:09:29Z</time>
      </trkpt>
      <trkpt lat="35.245230" lon="-111.564820">
        <ele>2110.677</ele>
        <time>2018-12-28T13:09:49Z</time>
      </trkpt>
      <trkpt lat="35.244970" lon="-111.565090">
        <ele>2110.845</ele>
        <time>2018-12-28T13:10:09Z</time>
      </trkpt>
      <trkpt lat="35.244510" lon="-111.565600">
        <ele>2111.320</ele>
        <time>2018-12-28T13:10:29Z</time>
      </trkpt>
      <trkpt lat="35.243950" lon="-111.566210">
        <ele>2111.391</ele>
        <time>2018-12-28T13:10:49Z</time>
      </trkpt>
      <trkpt lat="35.243530" lon="-111.566670">
        <ele>2112.116</ele>
        <time>2018-12-28T13:11:09Z</time>
      </trkpt>
      <trkpt lat="35.242990" lon="-111.567260">
        <ele>2113.624</ele>
        <time>2018-12-28T13:11:29Z</time>
      </trkpt>
      <trkpt lat="35.242240" lon="-111.568070">
        <ele>2117.056</ele>
        <time>2018-12-28T13:11:49Z</time>
      </trkpt>
      <trkpt lat="35.242030" lon="-111.568290">
        <ele>2118.135</ele>
        <time>2018-12-28T13:12:09Z</time>
      </trkpt>
      <trkpt lat="35.241930" lon="-111.568420">
        <ele>2118.511</ele>
        <time>2018-12-28T13:12:29Z</time>
      </trkpt>
      <trkpt lat="35.240990" lon="-111.569420">
        <ele>2118.821</ele>
        <time>2018-12-28T13:12:49Z</time>
      </trkpt>
      <trkpt lat="35.240050" lon="-111.570460">
        <ele>2117.303</ele>
        <time>2018-12-28T13:13:09Z</time>
      </trkpt>
      <trkpt lat="35.240000" lon="-111.570520">
        <ele>2117.008</ele>
        <time>2018-12-28T13:13:29Z</time>
      </trkpt>
      <trkpt lat="35.239760" lon="-111.570780">
        <ele>2115.474</ele>
        <time>2018-12-28T13:13:49Z</time>
      </trkpt>
      <trkpt lat="35.239690" lon="-111.570850">
        <ele>2115.132</ele>
        <time>2018-12-28T13:14:09Z</time>
      </trkpt>
      <trkpt lat="35.239350" lon="-111.571230">
        <ele>2114.057</ele>
        <time>2018-12-28T13:14:29Z</time>
      </trkpt>
      <trkpt lat="35.238960" lon="-111.571650">
        <ele>2113.058</ele>
        <time>2018-12-28T13:14:49Z</time>
      </trkpt>
      <trkpt lat="35.238880" lon="-111.571730">
        <ele>2112.933</ele>
        <time>2018-12-28T13:15:09Z</time>
      </trkpt>
      <trkpt lat="35.238670" lon="-111.571950">
        <ele>2112.731</ele>
        <time>2018-12-28T13:15:29Z</time>
      </trkpt>
      <trkpt lat="35.238530" lon="-111.572100">
        <ele>2112.613</ele>
        <time>2018-12-28T13:15:49Z</time>
      </trkpt>
      <trkpt lat="35.238420" lon="-111.572220">
        <ele>2112.572</ele>
        <time>2018-12-28T13:16:09Z</time>
      </trkpt>
      <trkpt lat="35.238350" lon="-111.572290">
        <ele>2112.524</ele>
        <time>2018-12-28T13:16:29Z</time>
      </trkpt>
      <trkpt lat="35.238190" lon="-111.572440">
        <ele>2112.204</ele>
        <time>2018-12-28T13:16:49Z</time>
      </trkpt>
      <trkpt lat="35.238030" lon="-111.572600">
        <ele>2111.914</ele>
        <time>2018-12-28T13:17:09Z</time>
      </trkpt>
      <trkpt lat="35.237990" lon="-111.572710">
        <ele>2112.008</ele>
        <time>2018-12-28T13:17:29Z</time>
      </trkpt>
      <trkpt lat="35.237990" lon="-111.572720">
        <ele>2112.035</ele>
        <time>2018-12-28T13:17:49Z</time>
      </trkpt>
      <trkpt lat="35.237980" lon="-111.572730">
        <ele>2112.043</ele>
        <time>2018-12-28T13:18:09Z</time>
      </trkpt>
      <trkpt lat="35.237890" lon="-111.572810">
        <ele>2111.668</ele>
        <time>2018-12-28T13:18:29Z</time>
      </trkpt>
      <trkpt lat="35.237630" lon="-111.573030">
        <ele>2110.339</ele>
        <time>2018-12-28T13:18:49Z</time>
      </trkpt>
      <trkpt lat="35.237470" lon="-111.573150">
        <ele>2110.064</ele>
        <time>2018-12-28T13:19:09Z</time>
      </trkpt>
      <trkpt lat="35.237080" lon="-111.573430">
        <ele>2109.282</ele>
        <time>2018-12-28T13:19:29Z</time>
      </trkpt>
      <trkpt lat="35.236320" lon="-111.573960">
        <ele>2107.974</ele>
        <time>2018-12-28T13:19:49Z</time>
      </trkpt>
      <trkpt lat="35.235990" lon="-111.574190">
        <ele>2107.293</ele>
        <time>2018-12-28T13:20:09Z</time>
      </trkpt>
      <trkpt lat="35.235590" lon="-111.574480">
        <ele>2106.189</ele>
        <time>2018-12-28T13:20:29Z</time>
      </trkpt>
      <trkpt lat="35.235430" lon="-111.574590">
        <ele>2105.606</ele>
        <time>2018-12-28T13:20:49Z</time>
      </trkpt>
      <trkpt lat="35.235010" lon="-111.574880">
        <ele>2103.826</ele>
        <time>2018-12-28T13:21:09Z</time>
      </trkpt>
      <trkpt lat="35.234580" lon="-111.575190">
        <ele>2103.308</ele>
        <time>2018-12-28T13:21:29Z</time>
      </trkpt>
      <trkpt lat="35.234320" lon="-111.575370">
        <ele>2103.231</ele>
        <time>2018-12-28T13:21:49Z</time>
      </trkpt>
      <trkpt lat="35.233970" lon="-111.575610">
        <ele>2102.769</ele>
        <time>2018-12-28T13:22:09Z</time>
      </trkpt>
      <trkpt lat="35.233860" lon="-111.575690">
        <ele>2102.764</ele>
        <time>2018-12-28T13:22:29Z</time>
      </trkpt>
      <trkpt lat="35.233700" lon="-111.575800">
        <ele>2102.445</ele>
        <time>2018-12-28T13:22:49Z</time>
      </trkpt>
      <trkpt lat="35.233340" lon="-111.576060">
        <ele>2101.830</ele>
        <time>2018-12-28T13:23:09Z</time>
      </trkpt>
      <trkpt lat="35.233240" lon="-111.576120">
        <ele>2101.628</ele>
        <time>2018-12-28T13:23:29Z</time>
      </trkpt>
      <trkpt lat="35.233110" lon="-111.576210">
        <ele>2101.330</ele>
        <time>2018-12-28T13:23:49Z</time>
      </trkpt>
      <trkpt lat="35.232930" lon="-111.576340">
        <ele>2100.949</ele>
        <time>2018-12-28T13:24:09Z</time>
      </trkpt>
      <trkpt lat="35.232290" lon="-111.576780">
        <ele>2099.448</ele>
        <time>2018-12-28T13:24:29Z</time>
      </trkpt>
      <trkpt lat="35.231990" lon="-111.577000">
        <ele>2097.961</ele>
        <time>2018-12-28T13:24:49Z</time>
      </trkpt>
      <trkpt lat="35.231850" lon="-111.577100">
        <ele>2097.217</ele>
        <time>2018-12-28T13:25:09Z</time>
      </trkpt>
      <trkpt lat="35.231220" lon="-111.577540">
        <ele>2095.708</ele>
        <time>2018-12-28T13:25:29Z</time>
      </trkpt>
      <trkpt lat="35.230740" lon="-111.577880">
        <ele>2094.327</ele>
        <time>2018-12-28T13:25:49Z</time>
      </trkpt>
      <trkpt lat="35.230630" lon="-111.577950">
        <ele>2094.145</ele>
        <time>2018-12-28T13:26:09Z</time>
      </trkpt>
      <trkpt lat="35.230300" lon="-111.578190">
        <ele>2093.440</ele>
        <time>2018-12-28T13:26:29Z</time>
      </trkpt>
      <trkpt lat="35.230030" lon="-111.578380">
        <ele>2092.571</ele>
        <time>2018-12-28T13:26:49Z</time>
      </trkpt>
      <trkpt lat="35.229570" lon="-111.578700">
        <ele>2092.156</ele>
        <time>2018-12-28T13:27:09Z</time>
      </trkpt>
      <trkpt lat="35.229470" lon="-111.578760">
        <ele>2092.034</ele>
        <time>2018-12-28T13:27:29Z</time>
      </trkpt>
      <trkpt lat="35.228540" lon="-111.579420">
        <ele>2091.916</ele>
        <time>2018-12-28T13:27:49Z</time>
      </trkpt>
      <trkpt lat="35.228330" lon="-111.579560">
        <ele>2091.875</ele>
        <time>2018-12-28T13:28:09Z</time>
      </trkpt>
      <trkpt lat="35.227810" lon="-111.579930">
        <ele>2090.836</ele>
        <time>2018-12-28T13:28:29Z</time>
      </trkpt>
      <trkpt lat="35.227620" lon="-111.580070">
        <ele>2089.117</ele>
        <time>2018-12-28T13:28:49Z</time>
      </trkpt>
      <trkpt lat="35.227520" lon="-111.580140">
        <ele>2087.818</ele>
        <time>2018-12-28T13:29:09Z</time>
      </trkpt>
      <trkpt lat="35.227070" lon="-111.580450">
        <ele>2085.008</ele>
        <time>2018-12-28T13:29:29Z</time>
      </trkpt>
      <trkpt lat="35.226950" lon="-111.580540">
        <ele>2084.886</ele>
        <time>2018-12-28T13:29:49Z</time>
      </trkpt>
      <trkpt lat="35.226800" lon="-111.580660">
        <ele>2084.764</ele>
        <time>2018-12-28T13:30:09Z</time>
      </trkpt>
      <trkpt lat="35.226480" lon="-111.580910">
        <ele>2084.419</ele>
        <time>2018-12-28T13:30:29Z</time>
      </trkpt>
      <trkpt lat="35.226300" lon="-111.581060">
        <ele>2084.270</ele>
        <time>2018-12-28T13:30:49Z</time>
      </trkpt>
      <trkpt lat="35.225780" lon="-111.581570">
        <ele>2084.095</ele>
        <time>2018-12-28T13:31:09Z</time>
      </trkpt>
      <trkpt lat="35.225710" lon="-111.581630">
        <ele>2084.033</ele>
        <time>2018-12-28T13:31:29Z</time>
      </trkpt>
      <trkpt lat="35.225240" lon="-111.582150">
        <ele>2084.455</ele>
        <time>2018-12-28T13:31:49Z</time>
      </trkpt>
      <trkpt lat="35.224820" lon="-111.582630">
        <ele>2084.774</ele>
        <time>2018-12-28T13:32:09Z</time>
      </trkpt>
      <trkpt lat="35.224570" lon="-111.582940">
        <ele>2084.942</ele>
        <time>2018-12-28T13:32:29Z</time>
      </trkpt>
      <trkpt lat="35.224500" lon="-111.583040">
        <ele>2084.922</ele>
        <time>2018-12-28T13:32:49Z</time>
      </trkpt>
      <trkpt lat="35.224280" lon="-111.583350">
        <ele>2084.814</ele>
        <time>2018-12-28T13:33:09Z</time>
      </trkpt>
      <trkpt lat="35.224040" lon="-111.583710">
        <ele>2084.708</ele>
        <time>2018-12-28T13:33:29Z</time>
      </trkpt>
      <trkpt lat="35.223700" lon="-111.584250">
        <ele>2084.247</ele>
        <time>2018-12-28T13:33:49Z</time>
      </trkpt>
      <trkpt lat="35.223520" lon="-111.584530">
        <ele>2084.155</ele>
        <time>2018-12-28T13:34:09Z</time>
      </trkpt>
      <trkpt lat="35.223350" lon="-111.584790">
        <ele>2083.960</ele>
        <time>2018-12-28T13:34:29Z</time>
      </trkpt>
      <trkpt lat="35.223110" lon="-111.585170">
        <ele>2083.641</ele>
        <time>2018-12-28T13:34:49Z</time>
      </trkpt>
      <trkpt lat="35.222860" lon="-111.585580">
        <ele>2083.236</ele>
        <time>2018-12-28T13:35:09Z</time>
      </trkpt>
      <trkpt lat="35.222810" lon="-111.585660">
        <ele>2083.134</ele>
        <time>2018-12-28T13:35:29Z</time>
      </trkpt>
      <trkpt lat="35.222460" lon="-111.586240">
        <ele>2082.096</ele>
        <time>2018-12-28T13:35:49Z</time>
      </trkpt>
      <trkpt lat="35.222210" lon="-111.586670">
        <ele>2081.575</ele>
        <time>2018-12-28T13:36:09Z</time>
      </trkpt>
      <trkpt lat="35.221830" lon="-111.587260">
        <ele>2081.319</ele>
        <time>2018-12-28T13:36:29Z</time>
      </trkpt>
      <trkpt lat="35.221370" lon="-111.588020">
        <ele>2081.309</ele>
        <time>2018-12-28T13:36:49Z</time>
      </trkpt>
      <trkpt lat="35.221290" lon="-111.588140">
        <ele>2081.319</ele>
        <time>2018-12-28T13:37:09Z</time>
      </trkpt>
      <trkpt lat="35.221110" lon="-111.588430">
        <ele>2081.308</ele>
        <time>2018-12-28T13:37:29Z</time>
      </trkpt>
      <trkpt lat="35.220870" lon="-111.588770">
        <ele>2081.454</ele>
        <time>2018-12-28T13:37:49Z</time>
      </trkpt>
      <trkpt lat="35.220730" lon="-111.588970">
        <ele>2081.552</ele>
        <time>2018-12-28T13:38:09Z</time>
      </trkpt>
      <trkpt lat="35.220600" lon="-111.589160">
        <ele>2081.657</ele>
        <time>2018-12-28T13:38:29Z</time>
      </trkpt>
      <trkpt lat="35.220400" lon="-111.589430">
        <ele>2081.768</ele>
        <time>2018-12-28T13:38:49Z</time>
      </trkpt>
      <trkpt lat="35.220240" lon="-111.589660">
        <ele>2081.793</ele>
        <time>2018-12-28T13:39:09Z</time>
      </trkpt>
      <trkpt lat="35.219930" lon="-111.590070">
        <ele>2081.431</ele>
        <time>2018-12-28T13:39:29Z</time>
      </trkpt>
      <trkpt lat="35.219750" lon="-111.590310">
        <ele>2081.383</ele>
        <time>2018-12-28T13:39:49Z</time>
      </trkpt>
      <trkpt lat="35.219640" lon="-111.590460">
        <ele>2081.212</ele>
        <time>2018-12-28T13:40:09Z</time>
      </trkpt>
      <trkpt lat="35.219040" lon="-111.591220">
        <ele>2080.955</ele>
        <time>2018-12-28T13:40:29Z</time>
      </trkpt>
      <trkpt lat="35.217570" lon="-111.593120">
        <ele>2080.307</ele>
        <time>2018-12-28T13:40:49Z</time>
      </trkpt>
      <trkpt lat="35.216880" lon="-111.594000">
        <ele>2079.417</ele>
        <time>2018-12-28T13:41:09Z</time>
      </trkpt>
      <trkpt lat="35.216876" lon="-111.593998">
        <ele>2079.408</ele>
        <time>2018-12-28T13:41:29Z</time>
      </trkpt>
      <trkpt lat="35.216760" lon="-111.594050">
        <ele>2079.278</ele>
        <time>2018-12-28T13:41:49Z</time>
      </trkpt>
      <trkpt lat="35.216520" lon="-111.594370">
        <ele>2079.276</ele>
        <time>2018-12-28T13:42:09Z</time>
      </trkpt>
      <trkpt lat="35.216260" lon="-111.594740">
        <ele>2079.671</ele>
        <time>2018-12-28T13:42:29Z</time>
      </trkpt>
      <trkpt lat="35.216170" lon="-111.594880">
        <ele>2079.942</ele>
        <time>2018-12-28T13:42:49Z</time>
      </trkpt>
      <trkpt lat="35.215710" lon="-111.595570">
        <ele>2081.447</ele>
        <time>2018-12-28T13:43:09Z</time>
      </trkpt>
      <trkpt lat="35.215390" lon="-111.596140">
        <ele>2082.385</ele>
        <time>2018-12-28T13:43:29Z</time>
      </trkpt>
      <trkpt lat="35.215330" lon="-111.596260">
        <ele>2082.697</ele>
        <time>2018-12-28T13:43:49Z</time>
      </trkpt>
      <trkpt lat="35.215070" lon="-111.596730">
        <ele>2083.286</ele>
        <time>2018-12-28T13:44:09Z</time>
      </trkpt>
      <trkpt lat="35.215050" lon="-111.596770">
        <ele>2083.387</ele>
        <time>2018-12-28T13:44:29Z</time>
      </trkpt>
      <trkpt lat="35.214910" lon="-111.597030">
        <ele>2083.542</ele>
        <time>2018-12-28T13:44:49Z</time>
      </trkpt>
      <trkpt lat="35.214330" lon="-111.598140">
        <ele>2083.626</ele>
        <time>2018-12-28T13:45:09Z</time>
      </trkpt>
      <trkpt lat="35.214320" lon="-111.598170">
        <ele>2083.608</ele>
        <time>2018-12-28T13:45:29Z</time>
      </trkpt>
      <trkpt lat="35.214080" lon="-111.598610">
        <ele>2083.691</ele>
        <time>2018-12-28T13:45:49Z</time>
      </trkpt>
      <trkpt lat="35.213190" lon="-111.600300">
        <ele>2085.929</ele>
        <time>2018-12-28T13:46:09Z</time>
      </trkpt>
      <trkpt lat="35.212560" lon="-111.601470">
        <ele>2086.414</ele>
        <time>2018-12-28T13:46:29Z</time>
      </trkpt>
      <trkpt lat="35.211080" lon="-111.604230">
        <ele>2087.015</ele>
        <time>2018-12-28T13:46:49Z</time>
      </trkpt>
      <trkpt lat="35.210890" lon="-111.604600">
        <ele>2087.160</ele>
        <time>2018-12-28T13:47:09Z</time>
      </trkpt>
      <trkpt lat="35.210820" lon="-111.604730">
        <ele>2087.168</ele>
        <time>2018-12-28T13:47:29Z</time>
      </trkpt>
      <trkpt lat="35.210580" lon="-111.605190">
        <ele>2087.460</ele>
        <time>2018-12-28T13:47:49Z</time>
      </trkpt>
      <trkpt lat="35.210340" lon="-111.605660">
        <ele>2087.729</ele>
        <time>2018-12-28T13:48:09Z</time>
      </trkpt>
      <trkpt lat="35.210280" lon="-111.605790">
        <ele>2087.796</ele>
        <time>2018-12-28T13:48:29Z</time>
      </trkpt>
      <trkpt lat="35.209990" lon="-111.606310">
        <ele>2088.031</ele>
        <time>2018-12-28T13:48:49Z</time>
      </trkpt>
      <trkpt lat="35.209900" lon="-111.606500">
        <ele>2088.124</ele>
        <time>2018-12-28T13:49:09Z</time>
      </trkpt>
      <trkpt lat="35.209670" lon="-111.606950">
        <ele>2088.208</ele>
        <time>2018-12-28T13:49:29Z</time>
      </trkpt>
      <trkpt lat="35.209290" lon="-111.607680">
        <ele>2088.352</ele>
        <time>2018-12-28T13:49:49Z</time>
      </trkpt>
      <trkpt lat="35.209250" lon="-111.607770">
        <ele>2088.360</ele>
        <time>2018-12-28T13:50:09Z</time>
      </trkpt>
      <trkpt lat="35.209010" lon="-111.608220">
        <ele>2088.125</ele>
        <time>2018-12-28T13:50:29Z</time>
      </trkpt>
      <trkpt lat="35.208970" lon="-111.608300">
        <ele>2088.166</ele>
        <time>2018-12-28T13:50:49Z</time>
      </trkpt>
      <trkpt lat="35.208540" lon="-111.609090">
        <ele>2088.381</ele>
        <time>2018-12-28T13:51:09Z</time>
      </trkpt>
      <trkpt lat="35.208380" lon="-111.609370">
        <ele>2088.479</ele>
        <time>2018-12-28T13:51:29Z</time>
      </trkpt>
      <trkpt lat="35.208320" lon="-111.609520">
        <ele>2088.531</ele>
        <time>2018-12-28T13:51:49Z</time>
      </trkpt>
      <trkpt lat="35.208310" lon="-111.609540">
        <ele>2088.670</ele>
        <time>2018-12-28T13:52:09Z</time>
      </trkpt>
      <trkpt lat="35.208180" lon="-111.609770">
        <ele>2088.854</ele>
        <time>2018-12-28T13:52:29Z</time>
      </trkpt>
      <trkpt lat="35.208140" lon="-111.609840">
        <ele>2088.856</ele>
        <time>2018-12-28T13:52:49Z</time>
      </trkpt>
      <trkpt lat="35.207790" lon="-111.610490">
        <ele>2089.211</ele>
        <time>2018-12-28T13:53:09Z</time>
      </trkpt>
      <trkpt lat="35.207700" lon="-111.610650">
        <ele>2089.308</ele>
        <time>2018-12-28T13:53:29Z</time>
      </trkpt>
      <trkpt lat="35.207610" lon="-111.610820">
        <ele>2089.438</ele>
        <time>2018-12-28T13:53:49Z</time>
      </trkpt>
      <trkpt lat="35.207600" lon="-111.610850">
        <ele>2089.436</ele>
        <time>2018-12-28T13:54:09Z</time>
      </trkpt>
      <trkpt lat="35.207360" lon="-111.611280">
        <ele>2089.641</ele>
        <time>2018-12-28T13:54:29Z</time>
      </trkpt>
      <trkpt lat="35.207240" lon="-111.611480">
        <ele>2089.772</ele>
        <time>2018-12-28T13:54:49Z</time>
      </trkpt>
      <trkpt lat="35.207140" lon="-111.611640">
        <ele>2089.847</ele>
        <time>2018-12-28T13:55:09Z</time>
      </trkpt>
      <trkpt lat="35.207070" lon="-111.611750">
        <ele>2089.915</ele>
        <time>2018-12-28T13:55:29Z</time>
      </trkpt>
      <trkpt lat="35.207030" lon="-111.611810">
        <ele>2089.957</ele>
        <time>2018-12-28T13:55:49Z</time>
      </trkpt>
      <trkpt lat="35.206940" lon="-111.611960">
        <ele>2090.176</ele>
        <time>2018-12-28T13:56:09Z</time>
      </trkpt>
      <trkpt lat="35.206830" lon="-111.612130">
        <ele>2090.237</ele>
        <time>2018-12-28T13:56:29Z</time>
      </trkpt>
      <trkpt lat="35.206780" lon="-111.612210">
        <ele>2090.349</ele>
        <time>2018-12-28T13:56:49Z</time>
      </trkpt>
      <trkpt lat="35.206610" lon="-111.612440">
        <ele>2090.613</ele>
        <time>2018-12-28T13:57:09Z</time>
      </trkpt>
      <trkpt lat="35.206200" lon="-111.613010">
        <ele>2091.108</ele>
        <time>2018-12-28T13:57:29Z</time>
      </trkpt>
      <trkpt lat="35.206120" lon="-111.613110">
        <ele>2091.126</ele>
        <time>2018-12-28T13:57:49Z</time>
      </trkpt>
      <trkpt lat="35.205930" lon="-111.613340">
        <ele>2091.294</ele>
        <time>2018-12-28T13:58:09Z</time>
      </trkpt>
      <trkpt lat="35.205830" lon="-111.613450">
        <ele>2091.279</ele>
        <time>2018-12-28T13:58:29Z</time>
      </trkpt>
      <trkpt lat="35.205550" lon="-111.613760">
        <ele>2091.120</ele>
        <time>2018-12-28T13:58:49Z</time>
      </trkpt>
      <trkpt lat="35.205340" lon="-111.613980">
        <ele>2090.985</ele>
        <time>2018-12-28T13:59:09Z</time>
      </trkpt>
      <trkpt lat="35.205110" lon="-111.614220">
        <ele>2090.733</ele>
        <time>2018-12-28T13:59:29Z</time>
      </trkpt>
      <trkpt lat="35.205030" lon="-111.614290">
        <ele>2090.725</ele>
        <time>2018-12-28T13:59:49Z</time>
      </trkpt>
      <trkpt lat="35.204950" lon="-111.614380">
        <ele>2090.624</ele>
        <time>2018-12-28T14:00:09Z</time>
      </trkpt>
      <trkpt lat="35.204820" lon="-111.614500">
        <ele>2090.564</ele>
        <time>2018-12-28T14:00:29Z</time>
      </trkpt>
      <trkpt lat="35.204540" lon="-111.614750">
        <ele>2089.806</ele>
        <time>2018-12-28T14:00:49Z</time>
      </trkpt>
      <trkpt lat="35.204300" lon="-111.614960">
        <ele>2089.016</ele>
        <time>2018-12-28T14:01:09Z</time>
      </trkpt>
      <trkpt lat="35.204070" lon="-111.615160">
        <ele>2088.208</ele>
        <time>2018-12-28T14:01:29Z</time>
      </trkpt>
      <trkpt lat="35.203960" lon="-111.615250">
        <ele>2087.869</ele>
        <time>2018-12-28T14:01:49Z</time>
      </trkpt>
      <trkpt lat="35.203900" lon="-111.615310">
        <ele>2087.657</ele>
        <time>2018-12-28T14:02:09Z</time>
      </trkpt>
      <trkpt lat="35.203870" lon="-111.615330">
        <ele>2087.532</ele>
        <time>2018-12-28T14:02:29Z</time>
      </trkpt>
      <trkpt lat="35.203600" lon="-111.615550">
        <ele>2086.863</ele>
        <time>2018-12-28T14:02:49Z</time>
      </trkpt>
      <trkpt lat="35.203180" lon="-111.615920">
        <ele>2086.228</ele>
        <time>2018-12-28T14:03:09Z</time>
      </trkpt>
      <trkpt lat="35.202470" lon="-111.616540">
        <ele>2085.816</ele>
        <time>2018-12-28T14:03:29Z</time>
      </trkpt>
      <trkpt lat="35.201720" lon="-111.617190">
        <ele>2086.818</ele>
        <time>2018-12-28T14:03:49Z</time>
      </trkpt>
      <trkpt lat="35.201130" lon="-111.617730">
        <ele>2089.747</ele>
        <time>2018-12-28T14:04:09Z</time>
      </trkpt>
      <trkpt lat="35.200750" lon="-111.618050">
        <ele>2090.655</ele>
        <time>2018-12-28T14:04:29Z</time>
      </trkpt>
      <trkpt lat="35.200390" lon="-111.618360">
        <ele>2091.307</ele>
        <time>2018-12-28T14:04:49Z</time>
      </trkpt>
      <trkpt lat="35.199910" lon="-111.618780">
        <ele>2091.517</ele>
        <time>2018-12-28T14:05:09Z</time>
      </trkpt>
      <trkpt lat="35.199560" lon="-111.619090">
        <ele>2091.508</ele>
        <time>2018-12-28T14:05:29Z</time>
      </trkpt>
      <trkpt lat="35.199180" lon="-111.619410">
        <ele>2091.438</ele>
        <time>2018-12-28T14:05:49Z</time>
      </trkpt>
      <trkpt lat="35.198860" lon="-111.619710">
        <ele>2091.466</ele>
        <time>2018-12-28T14:06:09Z</time>
      </trkpt>
      <trkpt lat="35.198620" lon="-111.619950">
        <ele>2091.671</ele>
        <time>2018-12-28T14:06:29Z</time>
      </trkpt>
      <trkpt lat="35.198470" lon="-111.620110">
        <ele>2091.942</ele>
        <time>2018-12-28T14:06:49Z</time>
      </trkpt>
      <trkpt lat="35.198360" lon="-111.620240">
        <ele>2092.557</ele>
        <time>2018-12-28T14:07:09Z</time>
      </trkpt>
      <trkpt lat="35.198260" lon="-111.620360">
        <ele>2092.885</ele>
        <time>2018-12-28T14:07:29Z</time>
      </trkpt>
      <trkpt lat="35.198040" lon="-111.620630">
        <ele>2093.437</ele>
        <time>2018-12-28T14:07:49Z</time>
      </trkpt>
      <trkpt lat="35.197870" lon="-111.620860">
        <ele>2093.686</ele>
        <time>2018-12-28T14:08:09Z</time>
      </trkpt>
      <trkpt lat="35.197700" lon="-111.621100">
        <ele>2093.854</ele>
        <time>2018-12-28T14:08:29Z</time>
      </trkpt>
      <trkpt lat="35.197350" lon="-111.621650">
        <ele>2094.956</ele>
        <time>2018-12-28T14:08:49Z</time>
      </trkpt>
      <trkpt lat="35.197100" lon="-111.622110">
        <ele>2094.511</ele>
        <time>2018-12-28T14:09:09Z</time>
      </trkpt>
      <trkpt lat="35.197040" lon="-111.622220">
        <ele>2094.108</ele>
        <time>2018-12-28T14:09:29Z</time>
      </trkpt>
      <trkpt lat="35.196990" lon="-111.622340">
        <ele>2093.848</ele>
        <time>2018-12-28T14:09:49Z</time>
      </trkpt>
      <trkpt lat="35.196920" lon="-111.622470">
        <ele>2093.386</ele>
        <time>2018-12-28T14:10:09Z</time>
      </trkpt>
      <trkpt lat="35.196870" lon="-111.622590">
        <ele>2093.161</ele>
        <time>2018-12-28T14:10:29Z</time>
      </trkpt>
      <trkpt lat="35.196800" lon="-111.622730">
        <ele>2092.762</ele>
        <time>2018-12-28T14:10:49Z</time>
      </trkpt>
      <trkpt lat="35.196740" lon="-111.622870">
        <ele>2092.547</ele>
        <time>2018-12-28T14:11:09Z</time>
      </trkpt>
      <trkpt lat="35.196700" lon="-111.622990">
        <ele>2092.415</ele>
        <time>2018-12-28T14:11:29Z</time>
      </trkpt>
      <trkpt lat="35.196620" lon="-111.623190">
        <ele>2092.137</ele>
        <time>2018-12-28T14:11:49Z</time>
      </trkpt>
      <trkpt lat="35.196570" lon="-111.623330">
        <ele>2091.936</ele>
        <time>2018-12-28T14:12:09Z</time>
      </trkpt>
      <trkpt lat="35.196520" lon="-111.623460">
        <ele>2091.791</ele>
        <time>2018-12-28T14:12:29Z</time>
      </trkpt>
      <trkpt lat="35.196450" lon="-111.623650">
        <ele>2091.081</ele>
        <time>2018-12-28T14:12:49Z</time>
      </trkpt>
      <trkpt lat="35.196440" lon="-111.623670">
        <ele>2090.919</ele>
        <time>2018-12-28T14:13:09Z</time>
      </trkpt>
      <trkpt lat="35.196360" lon="-111.623930">
        <ele>2089.908</ele>
        <time>2018-12-28T14:13:29Z</time>
      </trkpt>
      <trkpt lat="35.196280" lon="-111.624200">
        <ele>2088.462</ele>
        <time>2018-12-28T14:13:49Z</time>
      </trkpt>
      <trkpt lat="35.196220" lon="-111.624390">
        <ele>2087.420</ele>
        <time>2018-12-28T14:14:09Z</time>
      </trkpt>
      <trkpt lat="35.196190" lon="-111.624520">
        <ele>2087.085</ele>
        <time>2018-12-28T14:14:29Z</time>
      </trkpt>
      <trkpt lat="35.196100" lon="-111.624830">
        <ele>2087.546</ele>
        <time>2018-12-28T14:14:49Z</time>
      </trkpt>
      <trkpt lat="35.196100" lon="-111.624850">
        <ele>2087.611</ele>
        <time>2018-12-28T14:15:09Z</time>
      </trkpt>
      <trkpt lat="35.195920" lon="-111.625520">
        <ele>2087.279</ele>
        <time>2018-12-28T14:15:29Z</time>
      </trkpt>
      <trkpt lat="35.195770" lon="-111.626020">
        <ele>2086.931</ele>
        <time>2018-12-28T14:15:49Z</time>
      </trkpt>
      <trkpt lat="35.195700" lon="-111.626290">
        <ele>2086.960</ele>
        <time>2018-12-28T14:16:09Z</time>
      </trkpt>
      <trkpt lat="35.195470" lon="-111.627110">
        <ele>2088.273</ele>
        <time>2018-12-28T14:16:29Z</time>
      </trkpt>
      <trkpt lat="35.195150" lon="-111.628250">
        <ele>2093.885</ele>
        <time>2018-12-28T14:16:49Z</time>
      </trkpt>
      <trkpt lat="35.195110" lon="-111.628420">
        <ele>2094.513</ele>
        <time>2018-12-28T14:17:09Z</time>
      </trkpt>
      <trkpt lat="35.194780" lon="-111.629680">
        <ele>2096.508</ele>
        <time>2018-12-28T14:17:29Z</time>
      </trkpt>
      <trkpt lat="35.194550" lon="-111.630500">
        <ele>2094.630</ele>
        <time>2018-12-28T14:17:49Z</time>
      </trkpt>
      <trkpt lat="35.194130" lon="-111.632010">
        <ele>2092.048</ele>
        <time>2018-12-28T14:18:09Z</time>
      </trkpt>
      <trkpt lat="35.194100" lon="-111.632140">
        <ele>2092.173</ele>
        <time>2018-12-28T14:18:29Z</time>
      </trkpt>
      <trkpt lat="35.193970" lon="-111.632670">
        <ele>2092.394</ele>
        <time>2018-12-28T14:18:49Z</time>
      </trkpt>
      <trkpt lat="35.193930" lon="-111.632840">
        <ele>2092.339</ele>
        <time>2018-12-28T14:19:09Z</time>
      </trkpt>
      <trkpt lat="35.193830" lon="-111.633310">
        <ele>2092.427</ele>
        <time>2018-12-28T14:19:29Z</time>
      </trkpt>
      <trkpt lat="35.193810" lon="-111.633380">
        <ele>2092.429</ele>
        <time>2018-12-28T14:19:49Z</time>
      </trkpt>
      <trkpt lat="35.193730" lon="-111.633880">
        <ele>2093.658</ele>
        <time>2018-12-28T14:20:09Z</time>
      </trkpt>
      <trkpt lat="35.193720" lon="-111.633960">
        <ele>2094.076</ele>
        <time>2018-12-28T14:20:29Z</time>
      </trkpt>
      <trkpt lat="35.193690" lon="-111.634270">
        <ele>2096.890</ele>
        <time>2018-12-28T14:20:49Z</time>
      </trkpt>
      <trkpt lat="35.193660" lon="-111.634840">
        <ele>2099.219</ele>
        <time>2018-12-28T14:21:09Z</time>
      </trkpt>
      <trkpt lat="35.193650" lon="-111.635080">
        <ele>2099.708</ele>
        <time>2018-12-28T14:21:29Z</time>
      </trkpt>
      <trkpt lat="35.193650" lon="-111.635210">
        <ele>2100.030</ele>
        <time>2018-12-28T14:21:49Z</time>
      </trkpt>
      <trkpt lat="35.193660" lon="-111.635630">
        <ele>2100.838</ele>
        <time>2018-12-28T14:22:09Z</time>
      </trkpt>
      <trkpt lat="35.193670" lon="-111.635840">
        <ele>2101.043</ele>
        <time>2018-12-28T14:22:29Z</time>
      </trkpt>
      <trkpt lat="35.193680" lon="-111.636010">
        <ele>2101.274</ele>
        <time>2018-12-28T14:22:49Z</time>
      </trkpt>
      <trkpt lat="35.193710" lon="-111.636280">
        <ele>2101.449</ele>
        <time>2018-12-28T14:23:09Z</time>
      </trkpt>
      <trkpt lat="35.193740" lon="-111.636530">
        <ele>2101.527</ele>
        <time>2018-12-28T14:23:29Z</time>
      </trkpt>
      <trkpt lat="35.193780" lon="-111.636790">
        <ele>2101.769</ele>
        <time>2018-12-28T14:23:49Z</time>
      </trkpt>
      <trkpt lat="35.193820" lon="-111.637040">
        <ele>2102.148</ele>
        <time>2018-12-28T14:24:09Z</time>
      </trkpt>
      <trkpt lat="35.193870" lon="-111.637310">
        <ele>2102.662</ele>
        <time>2018-12-28T14:24:29Z</time>
      </trkpt>
      <trkpt lat="35.193930" lon="-111.637570">
        <ele>2103.383</ele>
        <time>2018-12-28T14:24:49Z</time>
      </trkpt>
      <trkpt lat="35.194010" lon="-111.637890">
        <ele>2104.611</ele>
        <time>2018-12-28T14:25:09Z</time>
      </trkpt>
      <trkpt lat="35.194160" lon="-111.638440">
        <ele>2105.308</ele>
        <time>2018-12-28T14:25:29Z</time>
      </trkpt>
      <trkpt lat="35.194340" lon="-111.639050">
        <ele>2106.219</ele>
        <time>2018-12-28T14:25:49Z</time>
      </trkpt>
      <trkpt lat="35.194580" lon="-111.639800">
        <ele>2108.967</ele>
        <time>2018-12-28T14:26:09Z</time>
      </trkpt>
      <trkpt lat="35.194810" lon="-111.640540">
        <ele>2109.232</ele>
        <time>2018-12-28T14:26:29Z</time>
      </trkpt>
      <trkpt lat="35.195100" lon="-111.641460">
        <ele>2109.433</ele>
        <time>2018-12-28T14:26:49Z</time>
      </trkpt>
      <trkpt lat="35.195390" lon="-111.642390">
        <ele>2109.038</ele>
        <time>2018-12-28T14:27:09Z</time>
      </trkpt>
      <trkpt lat="35.195820" lon="-111.643740">
        <ele>2105.636</ele>
        <time>2018-12-28T14:27:29Z</time>
      </trkpt>
      <trkpt lat="35.196150" lon="-111.644760">
        <ele>2104.038</ele>
        <time>2018-12-28T14:27:49Z</time>
      </trkpt>
      <trkpt lat="35.196210" lon="-111.644830">
        <ele>2104.087</ele>
        <time>2018-12-28T14:28:09Z</time>
      </trkpt>
      <trkpt lat="35.196360" lon="-111.645300">
        <ele>2103.812</ele>
        <time>2018-12-28T14:28:29Z</time>
      </trkpt>
      <trkpt lat="35.196530" lon="-111.645870">
        <ele>2103.532</ele>
        <time>2018-12-28T14:28:49Z</time>
      </trkpt>
      <trkpt lat="35.196690" lon="-111.646350">
        <ele>2103.205</ele>
        <time>2018-12-28T14:29:09Z</time>
      </trkpt>
      <trkpt lat="35.196890" lon="-111.646980">
        <ele>2103.108</ele>
        <time>2018-12-28T14:29:29Z</time>
      </trkpt>
      <trkpt lat="35.197020" lon="-111.647400">
        <ele>2103.334</ele>
        <time>2018-12-28T14:29:49Z</time>
      </trkpt>
      <trkpt lat="35.197220" lon="-111.648090">
        <ele>2104.142</ele>
        <time>2018-12-28T14:30:09Z</time>
      </trkpt>
      <trkpt lat="35.197420" lon="-111.648730">
        <ele>2104.527</ele>
        <time>2018-12-28T14:30:29Z</time>
      </trkpt>
      <trkpt lat="35.197570" lon="-111.649170">
        <ele>2104.538</ele>
        <time>2018-12-28T14:30:49Z</time>
      </trkpt>
      <trkpt lat="35.197760" lon="-111.649740">
        <ele>2104.463</ele>
        <time>2018-12-28T14:31:09Z</time>
      </trkpt>
      <trkpt lat="35.197930" lon="-111.650280">
        <ele>2104.011</ele>
        <time>2018-12-28T14:31:29Z</time>
      </trkpt>
      <trkpt lat="35.197990" lon="-111.650480">
        <ele>2103.953</ele>
        <time>2018-12-28T14:31:49Z</time>
      </trkpt>
      <trkpt lat="35.198070" lon="-111.650730">
        <ele>2103.912</ele>
        <time>2018-12-28T14:32:09Z</time>
      </trkpt>
      <trkpt lat="35.198250" lon="-111.651320">
        <ele>2104.197</ele>
        <time>2018-12-28T14:32:29Z</time>
      </trkpt>
      <trkpt lat="35.198252" lon="-111.651317">
        <ele>2104.123</ele>
        <time>2018-12-28T14:32:49Z</time>
      </trkpt>
      <trkpt lat="35.198252" lon="-111.651317">
        <ele>2104.199</ele>
        <time>2018-12-27T19:08:56Z</time>
      </trkpt>
      <trkpt lat="35.198270" lon="-111.651380">
        <ele>2104.107</ele>
        <time>2018-12-27T19:09:16Z</time>
      </trkpt>
      <trkpt lat="35.198271" lon="-111.651376">
        <ele>2104.127</ele>
        <time>2018-12-27T19:09:36Z</time>
      </trkpt>
      <trkpt lat="35.198710" lon="-111.651170">
        <ele>2104.108</ele>
        <time>2018-12-27T19:09:56Z</time>
      </trkpt>
      <trkpt lat="35.198860" lon="-111.651100">
        <ele>2104.182</ele>
        <time>2018-12-27T19:10:16Z</time>
      </trkpt>
      <trkpt lat="35.199200" lon="-111.650940">
        <ele>2104.160</ele>
        <time>2018-12-27T19:10:36Z</time>
      </trkpt>
      <trkpt lat="35.199640" lon="-111.650730">
        <ele>2104.065</ele>
        <time>2018-12-27T19:10:56Z</time>
      </trkpt>
      <trkpt lat="35.200110" lon="-111.650490">
        <ele>2104.146</ele>
        <time>2018-12-27T19:11:16Z</time>
      </trkpt>
      <trkpt lat="35.200550" lon="-111.650290">
        <ele>2104.851</ele>
        <time>2018-12-27T19:11:36Z</time>
      </trkpt>
      <trkpt lat="35.201040" lon="-111.650080">
        <ele>2106.481</ele>
        <time>2018-12-27T19:11:56Z</time>
      </trkpt>
      <trkpt lat="35.201930" lon="-111.649630">
        <ele>2109.553</ele>
        <time>2018-12-27T19:12:16Z</time>
      </trkpt>
      <trkpt lat="35.202870" lon="-111.649180">
        <ele>2114.387</ele>
        <time>2018-12-27T19:12:36Z</time>
      </trkpt>
      <trkpt lat="35.203800" lon="-111.648770">
        <ele>2117.373</ele>
        <time>2018-12-27T19:12:56Z</time>
      </trkpt>
      <trkpt lat="35.204720" lon="-111.648340">
        <ele>2117.685</ele>
        <time>2018-12-27T19:13:16Z</time>
      </trkpt>
      <trkpt lat="35.205640" lon="-111.647910">
        <ele>2118.013</ele>
        <time>2018-12-27T19:13:36Z</time>
      </trkpt>
      <trkpt lat="35.206540" lon="-111.647490">
        <ele>2119.608</ele>
        <time>2018-12-27T19:13:56Z</time>
      </trkpt>
      <trkpt lat="35.206542" lon="-111.647485">
        <ele>2119.720</ele>
        <time>2018-12-27T19:14:16Z</time>
      </trkpt>
      <trkpt lat="35.206600" lon="-111.647680">
        <ele>2119.248</ele>
        <time>2018-12-27T19:14:36Z</time>
      </trkpt>
      <trkpt lat="35.206650" lon="-111.647850">
        <ele>2118.633</ele>
        <time>2018-12-27T19:14:56Z</time>
      </trkpt>
      <trkpt lat="35.206680" lon="-111.647920">
        <ele>2118.374</ele>
        <time>2018-12-27T19:15:16Z</time>
      </trkpt>
      <trkpt lat="35.206720" lon="-111.648030">
        <ele>2117.899</ele>
        <time>2018-12-27T19:15:36Z</time>
      </trkpt>
      <trkpt lat="35.206790" lon="-111.648130">
        <ele>2117.469</ele>
        <time>2018-12-27T19:15:56Z</time>
      </trkpt>
      <trkpt lat="35.206820" lon="-111.648180">
        <ele>2117.191</ele>
        <time>2018-12-27T19:16:16Z</time>
      </trkpt>
      <trkpt lat="35.206860" lon="-111.648220">
        <ele>2116.975</ele>
        <time>2018-12-27T19:16:36Z</time>
      </trkpt>
      <trkpt lat="35.206880" lon="-111.648250">
        <ele>2116.845</ele>
        <time>2018-12-27T19:16:56Z</time>
      </trkpt>
      <trkpt lat="35.206950" lon="-111.648310">
        <ele>2116.547</ele>
        <time>2018-12-27T19:17:16Z</time>
      </trkpt>
      <trkpt lat="35.206949" lon="-111.648307">
        <ele>2116.511</ele>
        <time>2018-12-27T19:17:36Z</time>
      </trkpt>
      <trkpt lat="35.207020" lon="-111.648360">
        <ele>2116.208</ele>
        <time>2018-12-27T19:17:56Z</time>
      </trkpt>
      <trkpt lat="35.207060" lon="-111.648380">
        <ele>2116.277</ele>
        <time>2018-12-27T19:18:16Z</time>
      </trkpt>
      <trkpt lat="35.207080" lon="-111.648400">
        <ele>2116.145</ele>
        <time>2018-12-27T19:18:36Z</time>
      </trkpt>
      <trkpt lat="35.207290" lon="-111.648490">
        <ele>2116.280</ele>
        <time>2018-12-27T19:18:56Z</time>
      </trkpt>
      <trkpt lat="35.207620" lon="-111.648520">
        <ele>2117.971</ele>
        <time>2018-12-27T19:19:16Z</time>
      </trkpt>
      <trkpt lat="35.208180" lon="-111.648590">
        <ele>2120.396</ele>
        <time>2018-12-27T19:19:36Z</time>
      </trkpt>
      <trkpt lat="35.209430" lon="-111.648730">
        <ele>2121.356</ele>
        <time>2018-12-27T19:19:56Z</time>
      </trkpt>
      <trkpt lat="35.209610" lon="-111.648750">
        <ele>2121.478</ele>
        <time>2018-12-27T19:20:16Z</time>
      </trkpt>
      <trkpt lat="35.209740" lon="-111.648770">
        <ele>2121.562</ele>
        <time>2018-12-27T19:20:36Z</time>
      </trkpt>
      <trkpt lat="35.209830" lon="-111.648790">
        <ele>2121.576</ele>
        <time>2018-12-27T19:20:56Z</time>
      </trkpt>
      <trkpt lat="35.209900" lon="-111.648810">
        <ele>2121.690</ele>
        <time>2018-12-27T19:21:16Z</time>
      </trkpt>
      <trkpt lat="35.209930" lon="-111.648820">
        <ele>2121.619</ele>
        <time>2018-12-27T19:21:36Z</time>
      </trkpt>
      <trkpt lat="35.209930" lon="-111.648830">
        <ele>2121.608</ele>
        <time>2018-12-27T19:21:56Z</time>
      </trkpt>
      <trkpt lat="35.210010" lon="-111.648860">
        <ele>2121.690</ele>
        <time>2018-12-27T19:22:16Z</time>
      </trkpt>
      <trkpt lat="35.210100" lon="-111.648890">
        <ele>2121.758</ele>
        <time>2018-12-27T19:22:36Z</time>
      </trkpt>
      <trkpt lat="35.210250" lon="-111.648960">
        <ele>2121.763</ele>
        <time>2018-12-27T19:22:56Z</time>
      </trkpt>
      <trkpt lat="35.210330" lon="-111.649000">
        <ele>2121.874</ele>
        <time>2018-12-27T19:23:16Z</time>
      </trkpt>
      <trkpt lat="35.210490" lon="-111.649100">
        <ele>2121.939</ele>
        <time>2018-12-27T19:23:36Z</time>
      </trkpt>
      <trkpt lat="35.210660" lon="-111.649210">
        <ele>2122.049</ele>
        <time>2018-12-27T19:23:56Z</time>
      </trkpt>
      <trkpt lat="35.210960" lon="-111.649410">
        <ele>2122.111</ele>
        <time>2018-12-27T19:24:16Z</time>
      </trkpt>
      <trkpt lat="35.211260" lon="-111.649600">
        <ele>2122.175</ele>
        <time>2018-12-27T19:24:36Z</time>
      </trkpt>
      <trkpt lat="35.211480" lon="-111.649750">
        <ele>2122.041</ele>
        <time>2018-12-27T19:24:56Z</time>
      </trkpt>
      <trkpt lat="35.211720" lon="-111.649890">
        <ele>2121.981</ele>
        <time>2018-12-27T19:25:16Z</time>
      </trkpt>
      <trkpt lat="35.211840" lon="-111.649950">
        <ele>2121.909</ele>
        <time>2018-12-27T19:25:36Z</time>
      </trkpt>
      <trkpt lat="35.212060" lon="-111.650040">
        <ele>2121.808</ele>
        <time>2018-12-27T19:25:56Z</time>
      </trkpt>
      <trkpt lat="35.212280" lon="-111.650110">
        <ele>2121.857</ele>
        <time>2018-12-27T19:26:16Z</time>
      </trkpt>
      <trkpt lat="35.212390" lon="-111.650140">
        <ele>2121.895</ele>
        <time>2018-12-27T19:26:36Z</time>
      </trkpt>
      <trkpt lat="35.212560" lon="-111.650170">
        <ele>2121.870</ele>
        <time>2018-12-27T19:26:56Z</time>
      </trkpt>
      <trkpt lat="35.212750" lon="-111.650200">
        <ele>2121.841</ele>
        <time>2018-12-27T19:27:16Z</time>
      </trkpt>
      <trkpt lat="35.212990" lon="-111.650230">
        <ele>2121.866</ele>
        <time>2018-12-27T19:27:36Z</time>
      </trkpt>
      <trkpt lat="35.213720" lon="-111.650320">
        <ele>2121.866</ele>
        <time>2018-12-27T19:27:56Z</time>
      </trkpt>
      <trkpt lat="35.214280" lon="-111.650380">
        <ele>2122.038</ele>
        <time>2018-12-27T19:28:16Z</time>
      </trkpt>
      <trkpt lat="35.214700" lon="-111.650410">
        <ele>2122.242</ele>
        <time>2018-12-27T19:28:36Z</time>
      </trkpt>
      <trkpt lat="35.215070" lon="-111.650460">
        <ele>2122.216</ele>
        <time>2018-12-27T19:28:56Z</time>
      </trkpt>
      <trkpt lat="35.215130" lon="-111.650460">
        <ele>2122.276</ele>
        <time>2018-12-27T19:29:16Z</time>
      </trkpt>
      <trkpt lat="35.215250" lon="-111.650470">
        <ele>2122.413</ele>
        <time>2018-12-27T19:29:36Z</time>
      </trkpt>
      <trkpt lat="35.215310" lon="-111.650470">
        <ele>2122.608</ele>
        <time>2018-12-27T19:29:56Z</time>
      </trkpt>
      <trkpt lat="35.215360" lon="-111.650470">
        <ele>2122.714</ele>
        <time>2018-12-27T19:30:16Z</time>
      </trkpt>
      <trkpt lat="35.215460" lon="-111.650470">
        <ele>2123.232</ele>
        <time>2018-12-27T19:30:36Z</time>
      </trkpt>
      <trkpt lat="35.215530" lon="-111.650470">
        <ele>2123.867</ele>
        <time>2018-12-27T19:30:56Z</time>
      </trkpt>
      <trkpt lat="35.215600" lon="-111.650470">
        <ele>2124.448</ele>
        <time>2018-12-27T19:31:16Z</time>
      </trkpt>
      <trkpt lat="35.215950" lon="-111.650440">
        <ele>2126.543</ele>
        <time>2018-12-27T19:31:36Z</time>
      </trkpt>
      <trkpt lat="35.216050" lon="-111.650440">
        <ele>2126.773</ele>
        <time>2018-12-27T19:31:56Z</time>
      </trkpt>
      <trkpt lat="35.216150" lon="-111.650430">
        <ele>2126.835</ele>
        <time>2018-12-27T19:32:16Z</time>
      </trkpt>
      <trkpt lat="35.216240" lon="-111.650430">
        <ele>2126.839</ele>
        <time>2018-12-27T19:32:36Z</time>
      </trkpt>
      <trkpt lat="35.216390" lon="-111.650430">
        <ele>2126.865</ele>
        <time>2018-12-27T19:32:56Z</time>
      </trkpt>
      <trkpt lat="35.216430" lon="-111.650430">
        <ele>2126.868</ele>
        <time>2018-12-27T19:33:16Z</time>
      </trkpt>
      <trkpt lat="35.216540" lon="-111.650440">
        <ele>2126.714</ele>
        <time>2018-12-27T19:33:36Z</time>
      </trkpt>
      <trkpt lat="35.216640" lon="-111.650450">
        <ele>2126.708</ele>
        <time>2018-12-27T19:33:56Z</time>
      </trkpt>
      <trkpt lat="35.216780" lon="-111.650460">
        <ele>2126.769</ele>
        <time>2018-12-27T19:34:16Z</time>
      </trkpt>
      <trkpt lat="35.216910" lon="-111.650470">
        <ele>2126.787</ele>
        <time>2018-12-27T19:34:36Z</time>
      </trkpt>
      <trkpt lat="35.217030" lon="-111.650490">
        <ele>2126.752</ele>
        <time>2018-12-27T19:34:56Z</time>
      </trkpt>
      <trkpt lat="35.217130" lon="-111.650500">
        <ele>2126.843</ele>
        <time>2018-12-27T19:35:16Z</time>
      </trkpt>
      <trkpt lat="35.217490" lon="-111.650560">
        <ele>2126.958</ele>
        <time>2018-12-27T19:35:36Z</time>
      </trkpt>
      <trkpt lat="35.217580" lon="-111.650570">
        <ele>2126.978</ele>
        <time>2018-12-27T19:35:56Z</time>
      </trkpt>
      <trkpt lat="35.217920" lon="-111.650630">
        <ele>2127.290</ele>
        <time>2018-12-27T19:36:16Z</time>
      </trkpt>
      <trkpt lat="35.218070" lon="-111.650650">
        <ele>2127.454</ele>
        <time>2018-12-27T19:36:36Z</time>
      </trkpt>
      <trkpt lat="35.218140" lon="-111.650660">
        <ele>2127.419</ele>
        <time>2018-12-27T19:36:56Z</time>
      </trkpt>
      <trkpt lat="35.218250" lon="-111.650680">
        <ele>2127.509</ele>
        <time>2018-12-27T19:37:16Z</time>
      </trkpt>
      <trkpt lat="35.218300" lon="-111.650690">
        <ele>2127.519</ele>
        <time>2018-12-27T19:37:36Z</time>
      </trkpt>
      <trkpt lat="35.218390" lon="-111.650710">
        <ele>2127.608</ele>
        <time>2018-12-27T19:37:56Z</time>
      </trkpt>
      <trkpt lat="35.218500" lon="-111.650740">
        <ele>2127.614</ele>
        <time>2018-12-27T19:38:16Z</time>
      </trkpt>
      <trkpt lat="35.218580" lon="-111.650760">
        <ele>2127.652</ele>
        <time>2018-12-27T19:38:36Z</time>
      </trkpt>
      <trkpt lat="35.218660" lon="-111.650790">
        <ele>2127.657</ele>
        <time>2018-12-27T19:38:56Z</time>
      </trkpt>
      <trkpt lat="35.218750" lon="-111.650810">
        <ele>2127.688</ele>
        <time>2018-12-27T19:39:16Z</time>
      </trkpt>
      <trkpt lat="35.218870" lon="-111.650860">
        <ele>2127.623</ele>
        <time>2018-12-27T19:39:36Z</time>
      </trkpt>
      <trkpt lat="35.219000" lon="-111.650910">
        <ele>2127.523</ele>
        <time>2018-12-27T19:39:56Z</time>
      </trkpt>
      <trkpt lat="35.219170" lon="-111.650980">
        <ele>2127.325</ele>
        <time>2018-12-27T19:40:16Z</time>
      </trkpt>
      <trkpt lat="35.219260" lon="-111.651030">
        <ele>2127.219</ele>
        <time>2018-12-27T19:40:36Z</time>
      </trkpt>
      <trkpt lat="35.219370" lon="-111.651080">
        <ele>2127.367</ele>
        <time>2018-12-27T19:40:56Z</time>
      </trkpt>
      <trkpt lat="35.219450" lon="-111.651120">
        <ele>2127.381</ele>
        <time>2018-12-27T19:41:16Z</time>
      </trkpt>
      <trkpt lat="35.219560" lon="-111.651170">
        <ele>2127.419</ele>
        <time>2018-12-27T19:41:36Z</time>
      </trkpt>
      <trkpt lat="35.219670" lon="-111.651230">
        <ele>2127.508</ele>
        <time>2018-12-27T19:41:56Z</time>
      </trkpt>
      <trkpt lat="35.219780" lon="-111.651300">
        <ele>2127.649</ele>
        <time>2018-12-27T19:42:16Z</time>
      </trkpt>
      <trkpt lat="35.219930" lon="-111.651400">
        <ele>2127.727</ele>
        <time>2018-12-27T19:42:36Z</time>
      </trkpt>
      <trkpt lat="35.220030" lon="-111.651460">
        <ele>2127.872</ele>
        <time>2018-12-27T19:42:56Z</time>
      </trkpt>
      <trkpt lat="35.220120" lon="-111.651520">
        <ele>2127.773</ele>
        <time>2018-12-27T19:43:16Z</time>
      </trkpt>
      <trkpt lat="35.220190" lon="-111.651580">
        <ele>2127.788</ele>
        <time>2018-12-27T19:43:36Z</time>
      </trkpt>
      <trkpt lat="35.220290" lon="-111.651650">
        <ele>2127.618</ele>
        <time>2018-12-27T19:43:56Z</time>
      </trkpt>
      <trkpt lat="35.220350" lon="-111.651710">
        <ele>2127.590</ele>
        <time>2018-12-27T19:44:16Z</time>
      </trkpt>
      <trkpt lat="35.220410" lon="-111.651760">
        <ele>2127.454</ele>
        <time>2018-12-27T19:44:36Z</time>
      </trkpt>
      <trkpt lat="35.220470" lon="-111.651820">
        <ele>2127.424</ele>
        <time>2018-12-27T19:44:56Z</time>
      </trkpt>
      <trkpt lat="35.220550" lon="-111.651890">
        <ele>2127.504</ele>
        <time>2018-12-27T19:45:16Z</time>
      </trkpt>
      <trkpt lat="35.220630" lon="-111.651970">
        <ele>2127.514</ele>
        <time>2018-12-27T19:45:36Z</time>
      </trkpt>
      <trkpt lat="35.220750" lon="-111.652070">
        <ele>2127.708</ele>
        <time>2018-12-27T19:45:56Z</time>
      </trkpt>
      <trkpt lat="35.220880" lon="-111.652200">
        <ele>2127.815</ele>
        <time>2018-12-27T19:46:16Z</time>
      </trkpt>
      <trkpt lat="35.221110" lon="-111.652420">
        <ele>2127.963</ele>
        <time>2018-12-27T19:46:36Z</time>
      </trkpt>
      <trkpt lat="35.221380" lon="-111.652680">
        <ele>2127.758</ele>
        <time>2018-12-27T19:46:56Z</time>
      </trkpt>
      <trkpt lat="35.221510" lon="-111.652800">
        <ele>2127.819</ele>
        <time>2018-12-27T19:47:16Z</time>
      </trkpt>
      <trkpt lat="35.221590" lon="-111.652880">
        <ele>2127.914</ele>
        <time>2018-12-27T19:47:36Z</time>
      </trkpt>
      <trkpt lat="35.221690" lon="-111.652990">
        <ele>2128.084</ele>
        <time>2018-12-27T19:47:56Z</time>
      </trkpt>
      <trkpt lat="35.221730" lon="-111.653030">
        <ele>2128.046</ele>
        <time>2018-12-27T19:48:16Z</time>
      </trkpt>
      <trkpt lat="35.221780" lon="-111.653090">
        <ele>2128.040</ele>
        <time>2018-12-27T19:48:36Z</time>
      </trkpt>
      <trkpt lat="35.221840" lon="-111.653160">
        <ele>2128.136</ele>
        <time>2018-12-27T19:48:56Z</time>
      </trkpt>
      <trkpt lat="35.221910" lon="-111.653250">
        <ele>2128.117</ele>
        <time>2018-12-27T19:49:16Z</time>
      </trkpt>
      <trkpt lat="35.221930" lon="-111.653290">
        <ele>2128.118</ele>
        <time>2018-12-27T19:49:36Z</time>
      </trkpt>
      <trkpt lat="35.222160" lon="-111.653640">
        <ele>2128.408</ele>
        <time>2018-12-27T19:49:56Z</time>
      </trkpt>
      <trkpt lat="35.222290" lon="-111.653870">
        <ele>2128.496</ele>
        <time>2018-12-27T19:50:16Z</time>
      </trkpt>
      <trkpt lat="35.222350" lon="-111.653970">
        <ele>2128.494</ele>
        <time>2018-12-27T19:50:36Z</time>
      </trkpt>
      <trkpt lat="35.222510" lon="-111.654240">
        <ele>2128.689</ele>
        <time>2018-12-27T19:50:56Z</time>
      </trkpt>
      <trkpt lat="35.222590" lon="-111.654380">
        <ele>2128.960</ele>
        <time>2018-12-27T19:51:16Z</time>
      </trkpt>
      <trkpt lat="35.222660" lon="-111.654490">
        <ele>2129.315</ele>
        <time>2018-12-27T19:51:36Z</time>
      </trkpt>
      <trkpt lat="35.222960" lon="-111.654970">
        <ele>2131.845</ele>
        <time>2018-12-27T19:51:56Z</time>
      </trkpt>
      <trkpt lat="35.223270" lon="-111.655500">
        <ele>2133.497</ele>
        <time>2018-12-27T19:52:16Z</time>
      </trkpt>
      <trkpt lat="35.223440" lon="-111.655760">
        <ele>2133.781</ele>
        <time>2018-12-27T19:52:36Z</time>
      </trkpt>
      <trkpt lat="35.223490" lon="-111.655840">
        <ele>2133.726</ele>
        <time>2018-12-27T19:52:56Z</time>
      </trkpt>
      <trkpt lat="35.223560" lon="-111.655940">
        <ele>2133.747</ele>
        <time>2018-12-27T19:53:16Z</time>
      </trkpt>
      <trkpt lat="35.223610" lon="-111.656010">
        <ele>2133.811</ele>
        <time>2018-12-27T19:53:36Z</time>
      </trkpt>
      <trkpt lat="35.223670" lon="-111.656090">
        <ele>2133.808</ele>
        <time>2018-12-27T19:53:56Z</time>
      </trkpt>
      <trkpt lat="35.223730" lon="-111.656170">
        <ele>2133.845</ele>
        <time>2018-12-27T19:54:16Z</time>
      </trkpt>
      <trkpt lat="35.223790" lon="-111.656250">
        <ele>2133.813</ele>
        <time>2018-12-27T19:54:36Z</time>
      </trkpt>
      <trkpt lat="35.223850" lon="-111.656330">
        <ele>2133.778</ele>
        <time>2018-12-27T19:54:56Z</time>
      </trkpt>
      <trkpt lat="35.223910" lon="-111.656400">
        <ele>2133.759</ele>
        <time>2018-12-27T19:55:16Z</time>
      </trkpt>
      <trkpt lat="35.224010" lon="-111.656510">
        <ele>2133.844</ele>
        <time>2018-12-27T19:55:36Z</time>
      </trkpt>
      <trkpt lat="35.224080" lon="-111.656600">
        <ele>2133.954</ele>
        <time>2018-12-27T19:55:56Z</time>
      </trkpt>
      <trkpt lat="35.224250" lon="-111.656790">
        <ele>2134.146</ele>
        <time>2018-12-27T19:56:16Z</time>
      </trkpt>
      <trkpt lat="35.224320" lon="-111.656870">
        <ele>2134.310</ele>
        <time>2018-12-27T19:56:36Z</time>
      </trkpt>
      <trkpt lat="35.224470" lon="-111.657010">
        <ele>2134.996</ele>
        <time>2018-12-27T19:56:56Z</time>
      </trkpt>
      <trkpt lat="35.224640" lon="-111.657160">
        <ele>2135.431</ele>
        <time>2018-12-27T19:57:16Z</time>
      </trkpt>
      <trkpt lat="35.224730" lon="-111.657230">
        <ele>2135.724</ele>
        <time>2018-12-27T19:57:36Z</time>
      </trkpt>
      <trkpt lat="35.225210" lon="-111.657660">
        <ele>2136.808</ele>
        <time>2018-12-27T19:57:56Z</time>
      </trkpt>
      <trkpt lat="35.225340" lon="-111.657750">
        <ele>2137.132</ele>
        <time>2018-12-27T19:58:16Z</time>
      </trkpt>
      <trkpt lat="35.225700" lon="-111.658030">
        <ele>2137.530</ele>
        <time>2018-12-27T19:58:36Z</time>
      </trkpt>
      <trkpt lat="35.226400" lon="-111.658570">
        <ele>2137.495</ele>
        <time>2018-12-27T19:58:56Z</time>
      </trkpt>
      <trkpt lat="35.226750" lon="-111.658850">
        <ele>2137.546</ele>
        <time>2018-12-27T19:59:16Z</time>
      </trkpt>
      <trkpt lat="35.227110" lon="-111.659100">
        <ele>2137.841</ele>
        <time>2018-12-27T19:59:36Z</time>
      </trkpt>
      <trkpt lat="35.227300" lon="-111.659220">
        <ele>2138.141</ele>
        <time>2018-12-27T19:59:56Z</time>
      </trkpt>
      <trkpt lat="35.227520" lon="-111.659360">
        <ele>2138.483</ele>
        <time>2018-12-27T20:00:16Z</time>
      </trkpt>
      <trkpt lat="35.227640" lon="-111.659440">
        <ele>2138.637</ele>
        <time>2018-12-27T20:00:36Z</time>
      </trkpt>
      <trkpt lat="35.227880" lon="-111.659570">
        <ele>2139.246</ele>
        <time>2018-12-27T20:00:56Z</time>
      </trkpt>
      <trkpt lat="35.228200" lon="-111.659750">
        <ele>2139.488</ele>
        <time>2018-12-27T20:01:16Z</time>
      </trkpt>
      <trkpt lat="35.228410" lon="-111.659840">
        <ele>2139.416</ele>
        <time>2018-12-27T20:01:36Z</time>
      </trkpt>
      <trkpt lat="35.228600" lon="-111.659910">
        <ele>2139.308</ele>
        <time>2018-12-27T20:01:56Z</time>
      </trkpt>
      <trkpt lat="35.228640" lon="-111.659930">
        <ele>2139.387</ele>
        <time>2018-12-27T20:02:16Z</time>
      </trkpt>
      <trkpt lat="35.228780" lon="-111.659980">
        <ele>2139.325</ele>
        <time>2018-12-27T20:02:36Z</time>
      </trkpt>
      <trkpt lat="35.229280" lon="-111.660190">
        <ele>2139.220</ele>
        <time>2018-12-27T20:02:56Z</time>
      </trkpt>
      <trkpt lat="35.229860" lon="-111.660430">
        <ele>2139.371</ele>
        <time>2018-12-27T20:03:16Z</time>
      </trkpt>
      <trkpt lat="35.230240" lon="-111.660570">
        <ele>2139.846</ele>
        <time>2018-12-27T20:03:36Z</time>
      </trkpt>
      <trkpt lat="35.230610" lon="-111.660710">
        <ele>2140.626</ele>
        <time>2018-12-27T20:03:56Z</time>
      </trkpt>
      <trkpt lat="35.230850" lon="-111.660800">
        <ele>2141.498</ele>
        <time>2018-12-27T20:04:16Z</time>
      </trkpt>
      <trkpt lat="35.231130" lon="-111.660910">
        <ele>2143.212</ele>
        <time>2018-12-27T20:04:36Z</time>
      </trkpt>
      <trkpt lat="35.231430" lon="-111.661040">
        <ele>2145.088</ele>
        <time>2018-12-27T20:04:56Z</time>
      </trkpt>
      <trkpt lat="35.231510" lon="-111.661080">
        <ele>2145.624</ele>
        <time>2018-12-27T20:05:16Z</time>
      </trkpt>
      <trkpt lat="35.231540" lon="-111.661090">
        <ele>2145.726</ele>
        <time>2018-12-27T20:05:36Z</time>
      </trkpt>
      <trkpt lat="35.231760" lon="-111.661220">
        <ele>2147.108</ele>
        <time>2018-12-27T20:05:56Z</time>
      </trkpt>
      <trkpt lat="35.231810" lon="-111.661250">
        <ele>2147.491</ele>
        <time>2018-12-27T20:06:16Z</time>
      </trkpt>
      <trkpt lat="35.231860" lon="-111.661290">
        <ele>2147.659</ele>
        <time>2018-12-27T20:06:36Z</time>
      </trkpt>
      <trkpt lat="35.231980" lon="-111.661380">
        <ele>2148.254</ele>
        <time>2018-12-27T20:06:56Z</time>
      </trkpt>
      <trkpt lat="35.232180" lon="-111.661530">
        <ele>2149.295</ele>
        <time>2018-12-27T20:07:16Z</time>
      </trkpt>
      <trkpt lat="35.232230" lon="-111.661570">
        <ele>2149.520</ele>
        <time>2018-12-27T20:07:36Z</time>
      </trkpt>
      <trkpt lat="35.232270" lon="-111.661600">
        <ele>2149.780</ele>
        <time>2018-12-27T20:07:56Z</time>
      </trkpt>
      <trkpt lat="35.232290" lon="-111.661620">
        <ele>2149.752</ele>
        <time>2018-12-27T20:08:16Z</time>
      </trkpt>
      <trkpt lat="35.232410" lon="-111.661720">
        <ele>2150.376</ele>
        <time>2018-12-27T20:08:36Z</time>
      </trkpt>
      <trkpt lat="35.232530" lon="-111.661850">
        <ele>2150.996</ele>
        <time>2018-12-27T20:08:56Z</time>
      </trkpt>
      <trkpt lat="35.232640" lon="-111.661960">
        <ele>2151.431</ele>
        <time>2018-12-27T20:09:16Z</time>
      </trkpt>
      <trkpt lat="35.232860" lon="-111.662230">
        <ele>2152.124</ele>
        <time>2018-12-27T20:09:36Z</time>
      </trkpt>
      <trkpt lat="35.232980" lon="-111.662390">
        <ele>2152.308</ele>
        <time>2018-12-27T20:09:56Z</time>
      </trkpt>
      <trkpt lat="35.233090" lon="-111.662540">
        <ele>2152.532</ele>
        <time>2018-12-27T20:10:16Z</time>
      </trkpt>
      <trkpt lat="35.233190" lon="-111.662680">
        <ele>2152.870</ele>
        <time>2018-12-27T20:10:36Z</time>
      </trkpt>
      <trkpt lat="35.233390" lon="-111.662960">
        <ele>2154.445</ele>
        <time>2018-12-27T20:10:56Z</time>
      </trkpt>
      <trkpt lat="35.233490" lon="-111.663100">
        <ele>2154.826</ele>
        <time>2018-12-27T20:11:16Z</time>
      </trkpt>
      <trkpt lat="35.233540" lon="-111.663160">
        <ele>2155.191</ele>
        <time>2018-12-27T20:11:36Z</time>
      </trkpt>
      <trkpt lat="35.233810" lon="-111.663530">
        <ele>2156.191</ele>
        <time>2018-12-27T20:11:56Z</time>
      </trkpt>
      <trkpt lat="35.234070" lon="-111.663880">
        <ele>2156.373</ele>
        <time>2018-12-27T20:12:16Z</time>
      </trkpt>
      <trkpt lat="35.234290" lon="-111.664150">
        <ele>2156.977</ele>
        <time>2018-12-27T20:12:36Z</time>
      </trkpt>
      <trkpt lat="35.234450" lon="-111.664370">
        <ele>2157.377</ele>
        <time>2018-12-27T20:12:56Z</time>
      </trkpt>
      <trkpt lat="35.234500" lon="-111.664440">
        <ele>2157.561</ele>
        <time>2018-12-27T20:13:16Z</time>
      </trkpt>
      <trkpt lat="35.234820" lon="-111.664810">
        <ele>2159.127</ele>
        <time>2018-12-27T20:13:36Z</time>
      </trkpt>
      <trkpt lat="35.235020" lon="-111.665030">
        <ele>2160.108</ele>
        <time>2018-12-27T20:13:56Z</time>
      </trkpt>
      <trkpt lat="35.235390" lon="-111.665420">
        <ele>2161.970</ele>
        <time>2018-12-27T20:14:16Z</time>
      </trkpt>
      <trkpt lat="35.235630" lon="-111.665680">
        <ele>2162.848</ele>
        <time>2018-12-27T20:14:36Z</time>
      </trkpt>
      <trkpt lat="35.235820" lon="-111.665870">
        <ele>2163.453</ele>
        <time>2018-12-27T20:14:56Z</time>
      </trkpt>
      <trkpt lat="35.236110" lon="-111.666210">
        <ele>2164.274</ele>
        <time>2018-12-27T20:15:16Z</time>
      </trkpt>
      <trkpt lat="35.236450" lon="-111.666600">
        <ele>2165.279</ele>
        <time>2018-12-27T20:15:36Z</time>
      </trkpt>
      <trkpt lat="35.236590" lon="-111.666770">
        <ele>2165.719</ele>
        <time>2018-12-27T20:15:56Z</time>
      </trkpt>
      <trkpt lat="35.236900" lon="-111.667110">
        <ele>2166.211</ele>
        <time>2018-12-27T20:16:16Z</time>
      </trkpt>
      <trkpt lat="35.237510" lon="-111.667770">
        <ele>2166.655</ele>
        <time>2018-12-27T20:16:36Z</time>
      </trkpt>
      <trkpt lat="35.237720" lon="-111.668000">
        <ele>2166.886</ele>
        <time>2018-12-27T20:16:56Z</time>
      </trkpt>
      <trkpt lat="35.237970" lon="-111.668260">
        <ele>2166.860</ele>
        <time>2018-12-27T20:17:16Z</time>
      </trkpt>
      <trkpt lat="35.238280" lon="-111.668600">
        <ele>2166.726</ele>
        <time>2018-12-27T20:17:36Z</time>
      </trkpt>
      <trkpt lat="35.238600" lon="-111.669000">
        <ele>2167.708</ele>
        <time>2018-12-27T20:17:56Z</time>
      </trkpt>
      <trkpt lat="35.238870" lon="-111.669450">
        <ele>2169.141</ele>
        <time>2018-12-27T20:18:16Z</time>
      </trkpt>
      <trkpt lat="35.239050" lon="-111.669790">
        <ele>2170.569</ele>
        <time>2018-12-27T20:18:36Z</time>
      </trkpt>
      <trkpt lat="35.239090" lon="-111.669870">
        <ele>2170.854</ele>
        <time>2018-12-27T20:18:56Z</time>
      </trkpt>
      <trkpt lat="35.239130" lon="-111.669970">
        <ele>2171.055</ele>
        <time>2018-12-27T20:19:16Z</time>
      </trkpt>
      <trkpt lat="35.239170" lon="-111.670060">
        <ele>2171.380</ele>
        <time>2018-12-27T20:19:36Z</time>
      </trkpt>
      <trkpt lat="35.239210" lon="-111.670160">
        <ele>2171.590</ele>
        <time>2018-12-27T20:19:56Z</time>
      </trkpt>
      <trkpt lat="35.239230" lon="-111.670210">
        <ele>2171.542</ele>
        <time>2018-12-27T20:20:16Z</time>
      </trkpt>
      <trkpt lat="35.239290" lon="-111.670380">
        <ele>2171.736</ele>
        <time>2018-12-27T20:20:36Z</time>
      </trkpt>
      <trkpt lat="35.239340" lon="-111.670540">
        <ele>2171.924</ele>
        <time>2018-12-27T20:20:56Z</time>
      </trkpt>
      <trkpt lat="35.239420" lon="-111.670800">
        <ele>2172.104</ele>
        <time>2018-12-27T20:21:16Z</time>
      </trkpt>
      <trkpt lat="35.239460" lon="-111.670960">
        <ele>2172.214</ele>
        <time>2018-12-27T20:21:36Z</time>
      </trkpt>
      <trkpt lat="35.239510" lon="-111.671180">
        <ele>2172.308</ele>
        <time>2018-12-27T20:21:56Z</time>
      </trkpt>
      <trkpt lat="35.239540" lon="-111.671340">
        <ele>2172.425</ele>
        <time>2018-12-27T20:22:16Z</time>
      </trkpt>
      <trkpt lat="35.239560" lon="-111.671470">
        <ele>2172.423</ele>
        <time>2018-12-27T20:22:36Z</time>
      </trkpt>
      <trkpt lat="35.239570" lon="-111.671550">
        <ele>2172.518</ele>
        <time>2018-12-27T20:22:56Z</time>
      </trkpt>
      <trkpt lat="35.239590" lon="-111.671670">
        <ele>2172.539</ele>
        <time>2018-12-27T20:23:16Z</time>
      </trkpt>
      <trkpt lat="35.239600" lon="-111.671770">
        <ele>2172.694</ele>
        <time>2018-12-27T20:23:36Z</time>
      </trkpt>
      <trkpt lat="35.239620" lon="-111.671970">
        <ele>2172.654</ele>
        <time>2018-12-27T20:23:56Z</time>
      </trkpt>
      <trkpt lat="35.239630" lon="-111.672110">
        <ele>2172.696</ele>
        <time>2018-12-27T20:24:16Z</time>
      </trkpt>
      <trkpt lat="35.239640" lon="-111.672230">
        <ele>2172.660</ele>
        <time>2018-12-27T20:24:36Z</time>
      </trkpt>
      <trkpt lat="35.239660" lon="-111.672330">
        <ele>2172.616</ele>
        <time>2018-12-27T20:24:56Z</time>
      </trkpt>
      <trkpt lat="35.239660" lon="-111.672770">
        <ele>2172.776</ele>
        <time>2018-12-27T20:25:16Z</time>
      </trkpt>
      <trkpt lat="35.239660" lon="-111.673230">
        <ele>2172.713</ele>
        <time>2018-12-27T20:25:36Z</time>
      </trkpt>
      <trkpt lat="35.239660" lon="-111.673730">
        <ele>2172.708</ele>
        <time>2018-12-27T20:25:56Z</time>
      </trkpt>
      <trkpt lat="35.239650" lon="-111.674200">
        <ele>2172.524</ele>
        <time>2018-12-27T20:26:16Z</time>
      </trkpt>
      <trkpt lat="35.239640" lon="-111.674590">
        <ele>2172.572</ele>
        <time>2018-12-27T20:26:36Z</time>
      </trkpt>
      <trkpt lat="35.239640" lon="-111.674970">
        <ele>2172.817</ele>
        <time>2018-12-27T20:26:56Z</time>
      </trkpt>
      <trkpt lat="35.239610" lon="-111.675100">
        <ele>2172.858</ele>
        <time>2018-12-27T20:27:16Z</time>
      </trkpt>
      <trkpt lat="35.239610" lon="-111.675420">
        <ele>2172.973</ele>
        <time>2018-12-27T20:27:36Z</time>
      </trkpt>
      <trkpt lat="35.239610" lon="-111.675850">
        <ele>2172.813</ele>
        <time>2018-12-27T20:27:56Z</time>
      </trkpt>
      <trkpt lat="35.239590" lon="-111.677640">
        <ele>2172.875</ele>
        <time>2018-12-27T20:28:16Z</time>
      </trkpt>
      <trkpt lat="35.239570" lon="-111.679770">
        <ele>2173.439</ele>
        <time>2018-12-27T20:28:36Z</time>
      </trkpt>
      <trkpt lat="35.239570" lon="-111.680190">
        <ele>2174.415</ele>
        <time>2018-12-27T20:28:56Z</time>
      </trkpt>
      <trkpt lat="35.239570" lon="-111.680400">
        <ele>2174.765</ele>
        <time>2018-12-27T20:29:16Z</time>
      </trkpt>
      <trkpt lat="35.239570" lon="-111.680570">
        <ele>2174.811</ele>
        <time>2018-12-27T20:29:36Z</time>
      </trkpt>
      <trkpt lat="35.239580" lon="-111.680750">
        <ele>2175.008</ele>
        <time>2018-12-27T20:29:56Z</time>
      </trkpt>
      <trkpt lat="35.239600" lon="-111.680930">
        <ele>2175.314</ele>
        <time>2018-12-27T20:30:16Z</time>
      </trkpt>
      <trkpt lat="35.239620" lon="-111.681100">
        <ele>2175.672</ele>
        <time>2018-12-27T20:30:36Z</time>
      </trkpt>
      <trkpt lat="35.239640" lon="-111.681220">
        <ele>2175.897</ele>
        <time>2018-12-27T20:30:56Z</time>
      </trkpt>
      <trkpt lat="35.239670" lon="-111.681340">
        <ele>2176.028</ele>
        <time>2018-12-27T20:31:16Z</time>
      </trkpt>
      <trkpt lat="35.239720" lon="-111.681570">
        <ele>2176.323</ele>
        <time>2018-12-27T20:31:36Z</time>
      </trkpt>
      <trkpt lat="35.239770" lon="-111.681750">
        <ele>2176.393</ele>
        <time>2018-12-27T20:31:56Z</time>
      </trkpt>
      <trkpt lat="35.239820" lon="-111.681900">
        <ele>2176.235</ele>
        <time>2018-12-27T20:32:16Z</time>
      </trkpt>
      <trkpt lat="35.239860" lon="-111.682030">
        <ele>2176.099</ele>
        <time>2018-12-27T20:32:36Z</time>
      </trkpt>
      <trkpt lat="35.239910" lon="-111.682160">
        <ele>2175.929</ele>
        <time>2018-12-27T20:32:56Z</time>
      </trkpt>
      <trkpt lat="35.240020" lon="-111.682400">
        <ele>2175.900</ele>
        <time>2018-12-27T20:33:16Z</time>
      </trkpt>
      <trkpt lat="35.240070" lon="-111.682520">
        <ele>2176.020</ele>
        <time>2018-12-27T20:33:36Z</time>
      </trkpt>
      <trkpt lat="35.240150" lon="-111.682670">
        <ele>2176.308</ele>
        <time>2018-12-27T20:33:56Z</time>
      </trkpt>
      <trkpt lat="35.240230" lon="-111.682810">
        <ele>2176.675</ele>
        <time>2018-12-27T20:34:16Z</time>
      </trkpt>
      <trkpt lat="35.240300" lon="-111.682920">
        <ele>2176.773</ele>
        <time>2018-12-27T20:34:36Z</time>
      </trkpt>
      <trkpt lat="35.240380" lon="-111.683040">
        <ele>2176.658</ele>
        <time>2018-12-27T20:34:56Z</time>
      </trkpt>
      <trkpt lat="35.240460" lon="-111.683160">
        <ele>2176.739</ele>
        <time>2018-12-27T20:35:16Z</time>
      </trkpt>
      <trkpt lat="35.240560" lon="-111.683290">
        <ele>2177.074</ele>
        <time>2018-12-27T20:35:36Z</time>
      </trkpt>
      <trkpt lat="35.240660" lon="-111.683410">
        <ele>2176.774</ele>
        <time>2018-12-27T20:35:56Z</time>
      </trkpt>
      <trkpt lat="35.240740" lon="-111.683500">
        <ele>2176.856</ele>
        <time>2018-12-27T20:36:16Z</time>
      </trkpt>
      <trkpt lat="35.240850" lon="-111.683610">
        <ele>2177.730</ele>
        <time>2018-12-27T20:36:36Z</time>
      </trkpt>
      <trkpt lat="35.240950" lon="-111.683710">
        <ele>2178.154</ele>
        <time>2018-12-27T20:36:56Z</time>
      </trkpt>
      <trkpt lat="35.241060" lon="-111.683810">
        <ele>2178.356</ele>
        <time>2018-12-27T20:37:16Z</time>
      </trkpt>
      <trkpt lat="35.241170" lon="-111.683910">
        <ele>2178.311</ele>
        <time>2018-12-27T20:37:36Z</time>
      </trkpt>
      <trkpt lat="35.241290" lon="-111.683990">
        <ele>2178.308</ele>
        <time>2018-12-27T20:37:56Z</time>
      </trkpt>
      <trkpt lat="35.241430" lon="-111.684090">
        <ele>2178.368</ele>
        <time>2018-12-27T20:38:16Z</time>
      </trkpt>
      <trkpt lat="35.241460" lon="-111.684110">
        <ele>2178.386</ele>
        <time>2018-12-27T20:38:36Z</time>
      </trkpt>
      <trkpt lat="35.241630" lon="-111.684210">
        <ele>2178.591</ele>
        <time>2018-12-27T20:38:56Z</time>
      </trkpt>
      <trkpt lat="35.241760" lon="-111.684290">
        <ele>2178.782</ele>
        <time>2018-12-27T20:39:16Z</time>
      </trkpt>
      <trkpt lat="35.241880" lon="-111.684340">
        <ele>2178.917</ele>
        <time>2018-12-27T20:39:36Z</time>
      </trkpt>
      <trkpt lat="35.243640" lon="-111.685320">
        <ele>2184.447</ele>
        <time>2018-12-27T20:39:56Z</time>
      </trkpt>
      <trkpt lat="35.244060" lon="-111.685560">
        <ele>2185.439</ele>
        <time>2018-12-27T20:40:16Z</time>
      </trkpt>
      <trkpt lat="35.244750" lon="-111.685950">
        <ele>2188.093</ele>
        <time>2018-12-27T20:40:36Z</time>
      </trkpt>
      <trkpt lat="35.245160" lon="-111.686190">
        <ele>2190.312</ele>
        <time>2018-12-27T20:40:56Z</time>
      </trkpt>
      <trkpt lat="35.245670" lon="-111.686480">
        <ele>2192.032</ele>
        <time>2018-12-27T20:41:16Z</time>
      </trkpt>
      <trkpt lat="35.245990" lon="-111.686660">
        <ele>2193.205</ele>
        <time>2018-12-27T20:41:36Z</time>
      </trkpt>
      <trkpt lat="35.246250" lon="-111.686840">
        <ele>2193.708</ele>
        <time>2018-12-27T20:41:56Z</time>
      </trkpt>
      <trkpt lat="35.246390" lon="-111.686930">
        <ele>2194.334</ele>
        <time>2018-12-27T20:42:16Z</time>
      </trkpt>
      <trkpt lat="35.246520" lon="-111.687030">
        <ele>2195.312</ele>
        <time>2018-12-27T20:42:36Z</time>
      </trkpt>
      <trkpt lat="35.246630" lon="-111.687120">
        <ele>2195.457</ele>
        <time>2018-12-27T20:42:56Z</time>
      </trkpt>
      <trkpt lat="35.246740" lon="-111.687220">
        <ele>2195.028</ele>
        <time>2018-12-27T20:43:16Z</time>
      </trkpt>
      <trkpt lat="35.246860" lon="-111.687330">
        <ele>2194.993</ele>
        <time>2018-12-27T20:43:36Z</time>
      </trkpt>
      <trkpt lat="35.246980" lon="-111.687460">
        <ele>2193.713</ele>
        <time>2018-12-27T20:43:56Z</time>
      </trkpt>
      <trkpt lat="35.247110" lon="-111.687590">
        <ele>2192.645</ele>
        <time>2018-12-27T20:44:16Z</time>
      </trkpt>
      <trkpt lat="35.247380" lon="-111.687920">
        <ele>2190.329</ele>
        <time>2018-12-27T20:44:36Z</time>
      </trkpt>
      <trkpt lat="35.247500" lon="-111.688070">
        <ele>2191.723</ele>
        <time>2018-12-27T20:44:56Z</time>
      </trkpt>
      <trkpt lat="35.247630" lon="-111.688240">
        <ele>2193.383</ele>
        <time>2018-12-27T20:45:16Z</time>
      </trkpt>
      <trkpt lat="35.247720" lon="-111.688370">
        <ele>2194.511</ele>
        <time>2018-12-27T20:45:36Z</time>
      </trkpt>
      <trkpt lat="35.247840" lon="-111.688560">
        <ele>2196.508</ele>
        <time>2018-12-27T20:45:56Z</time>
      </trkpt>
      <trkpt lat="35.247960" lon="-111.688750">
        <ele>2199.395</ele>
        <time>2018-12-27T20:46:16Z</time>
      </trkpt>
      <trkpt lat="35.248030" lon="-111.688870">
        <ele>2200.613</ele>
        <time>2018-12-27T20:46:36Z</time>
      </trkpt>
      <trkpt lat="35.248110" lon="-111.689020">
        <ele>2202.218</ele>
        <time>2018-12-27T20:46:56Z</time>
      </trkpt>
      <trkpt lat="35.248220" lon="-111.689260">
        <ele>2205.159</ele>
        <time>2018-12-27T20:47:16Z</time>
      </trkpt>
      <trkpt lat="35.248340" lon="-111.689510">
        <ele>2208.944</ele>
        <time>2018-12-27T20:47:36Z</time>
      </trkpt>
      <trkpt lat="35.248420" lon="-111.689710">
        <ele>2212.094</ele>
        <time>2018-12-27T20:47:56Z</time>
      </trkpt>
      <trkpt lat="35.248520" lon="-111.689950">
        <ele>2214.076</ele>
        <time>2018-12-27T20:48:16Z</time>
      </trkpt>
      <trkpt lat="35.248680" lon="-111.690400">
        <ele>2213.830</ele>
        <time>2018-12-27T20:48:36Z</time>
      </trkpt>
      <trkpt lat="35.248890" lon="-111.690980">
        <ele>2214.023</ele>
        <time>2018-12-27T20:48:56Z</time>
      </trkpt>
      <trkpt lat="35.250140" lon="-111.694340">
        <ele>2228.583</ele>
        <time>2018-12-27T20:49:16Z</time>
      </trkpt>
      <trkpt lat="35.250400" lon="-111.695040">
        <ele>2228.411</ele>
        <time>2018-12-27T20:49:36Z</time>
      </trkpt>
      <trkpt lat="35.250500" lon="-111.695320">
        <ele>2228.108</ele>
        <time>2018-12-27T20:49:56Z</time>
      </trkpt>
      <trkpt lat="35.250600" lon="-111.695560">
        <ele>2227.935</ele>
        <time>2018-12-27T20:50:16Z</time>
      </trkpt>
      <trkpt lat="35.250760" lon="-111.695960">
        <ele>2227.433</ele>
        <time>2018-12-27T20:50:36Z</time>
      </trkpt>
      <trkpt lat="35.250860" lon="-111.696180">
        <ele>2227.058</ele>
        <time>2018-12-27T20:50:56Z</time>
      </trkpt>
      <trkpt lat="35.250970" lon="-111.696400">
        <ele>2226.869</ele>
        <time>2018-12-27T20:51:16Z</time>
      </trkpt>
      <trkpt lat="35.251110" lon="-111.696670">
        <ele>2227.124</ele>
        <time>2018-12-27T20:51:36Z</time>
      </trkpt>
      <trkpt lat="35.251260" lon="-111.696930">
        <ele>2227.644</ele>
        <time>2018-12-27T20:51:56Z</time>
      </trkpt>
      <trkpt lat="35.251390" lon="-111.697130">
        <ele>2228.116</ele>
        <time>2018-12-27T20:52:16Z</time>
      </trkpt>
      <trkpt lat="35.251460" lon="-111.697250">
        <ele>2228.510</ele>
        <time>2018-12-27T20:52:36Z</time>
      </trkpt>
      <trkpt lat="35.251610" lon="-111.697480">
        <ele>2229.298</ele>
        <time>2018-12-27T20:52:56Z</time>
      </trkpt>
      <trkpt lat="35.251810" lon="-111.697750">
        <ele>2230.115</ele>
        <time>2018-12-27T20:53:16Z</time>
      </trkpt>
      <trkpt lat="35.251930" lon="-111.697910">
        <ele>2230.726</ele>
        <time>2018-12-27T20:53:36Z</time>
      </trkpt>
      <trkpt lat="35.252110" lon="-111.698120">
        <ele>2231.608</ele>
        <time>2018-12-27T20:53:56Z</time>
      </trkpt>
      <trkpt lat="35.252340" lon="-111.698400">
        <ele>2232.412</ele>
        <time>2018-12-27T20:54:16Z</time>
      </trkpt>
      <trkpt lat="35.252740" lon="-111.698860">
        <ele>2233.820</ele>
        <time>2018-12-27T20:54:36Z</time>
      </trkpt>
      <trkpt lat="35.253170" lon="-111.699350">
        <ele>2234.715</ele>
        <time>2018-12-27T20:54:56Z</time>
      </trkpt>
      <trkpt lat="35.253940" lon="-111.700240">
        <ele>2236.756</ele>
        <time>2018-12-27T20:55:16Z</time>
      </trkpt>
      <trkpt lat="35.254280" lon="-111.700620">
        <ele>2237.161</ele>
        <time>2018-12-27T20:55:36Z</time>
      </trkpt>
      <trkpt lat="35.254580" lon="-111.700960">
        <ele>2237.581</ele>
        <time>2018-12-27T20:55:56Z</time>
      </trkpt>
      <trkpt lat="35.254790" lon="-111.701190">
        <ele>2237.773</ele>
        <time>2018-12-27T20:56:16Z</time>
      </trkpt>
      <trkpt lat="35.255020" lon="-111.701430">
        <ele>2238.217</ele>
        <time>2018-12-27T20:56:36Z</time>
      </trkpt>
      <trkpt lat="35.255210" lon="-111.701620">
        <ele>2238.515</ele>
        <time>2018-12-27T20:56:56Z</time>
      </trkpt>
      <trkpt lat="35.255470" lon="-111.701870">
        <ele>2238.965</ele>
        <time>2018-12-27T20:57:16Z</time>
      </trkpt>
      <trkpt lat="35.255820" lon="-111.702190">
        <ele>2239.411</ele>
        <time>2018-12-27T20:57:36Z</time>
      </trkpt>
      <trkpt lat="35.256080" lon="-111.702400">
        <ele>2239.808</ele>
        <time>2018-12-27T20:57:56Z</time>
      </trkpt>
      <trkpt lat="35.256270" lon="-111.702550">
        <ele>2240.284</ele>
        <time>2018-12-27T20:58:16Z</time>
      </trkpt>
      <trkpt lat="35.256530" lon="-111.702760">
        <ele>2240.412</ele>
        <time>2018-12-27T20:58:36Z</time>
      </trkpt>
      <trkpt lat="35.256850" lon="-111.702990">
        <ele>2241.497</ele>
        <time>2018-12-27T20:58:56Z</time>
      </trkpt>
      <trkpt lat="35.257300" lon="-111.703300">
        <ele>2242.668</ele>
        <time>2018-12-27T20:59:16Z</time>
      </trkpt>
      <trkpt lat="35.257630" lon="-111.703500">
        <ele>2243.323</ele>
        <time>2018-12-27T20:59:36Z</time>
      </trkpt>
      <trkpt lat="35.257860" lon="-111.703630">
        <ele>2243.663</ele>
        <time>2018-12-27T20:59:56Z</time>
      </trkpt>
      <trkpt lat="35.258110" lon="-111.703770">
        <ele>2244.035</ele>
        <time>2018-12-27T21:00:16Z</time>
      </trkpt>
      <trkpt lat="35.258250" lon="-111.703840">
        <ele>2244.319</ele>
        <time>2018-12-27T21:00:36Z</time>
      </trkpt>
      <trkpt lat="35.258300" lon="-111.703850">
        <ele>2244.343</ele>
        <time>2018-12-27T21:00:56Z</time>
      </trkpt>
      <trkpt lat="35.258350" lon="-111.703870">
        <ele>2244.464</ele>
        <time>2018-12-27T21:01:16Z</time>
      </trkpt>
      <trkpt lat="35.258490" lon="-111.703940">
        <ele>2244.610</ele>
        <time>2018-12-27T21:01:36Z</time>
      </trkpt>
      <trkpt lat="35.258770" lon="-111.704060">
        <ele>2245.008</ele>
        <time>2018-12-27T21:01:56Z</time>
      </trkpt>
      <trkpt lat="35.258910" lon="-111.704120">
        <ele>2245.257</ele>
        <time>2018-12-27T21:02:16Z</time>
      </trkpt>
      <trkpt lat="35.259050" lon="-111.704170">
        <ele>2245.425</ele>
        <time>2018-12-27T21:02:36Z</time>
      </trkpt>
      <trkpt lat="35.259230" lon="-111.704250">
        <ele>2245.740</ele>
        <time>2018-12-27T21:02:56Z</time>
      </trkpt>
      <trkpt lat="35.259340" lon="-111.704290">
        <ele>2245.921</ele>
        <time>2018-12-27T21:03:16Z</time>
      </trkpt>
      <trkpt lat="35.259380" lon="-111.704310">
        <ele>2246.016</ele>
        <time>2018-12-27T21:03:36Z</time>
      </trkpt>
      <trkpt lat="35.259580" lon="-111.704380">
        <ele>2246.286</ele>
        <time>2018-12-27T21:03:56Z</time>
      </trkpt>
      <trkpt lat="35.259670" lon="-111.704410">
        <ele>2246.488</ele>
        <time>2018-12-27T21:04:16Z</time>
      </trkpt>
      <trkpt lat="35.260080" lon="-111.704550">
        <ele>2246.712</ele>
        <time>2018-12-27T21:04:36Z</time>
      </trkpt>
      <trkpt lat="35.260360" lon="-111.704630">
        <ele>2246.461</ele>
        <time>2018-12-27T21:04:56Z</time>
      </trkpt>
      <trkpt lat="35.260490" lon="-111.704670">
        <ele>2246.221</ele>
        <time>2018-12-27T21:05:16Z</time>
      </trkpt>
      <trkpt lat="35.260600" lon="-111.704710">
        <ele>2246.113</ele>
        <time>2018-12-27T21:05:36Z</time>
      </trkpt>
      <trkpt lat="35.260720" lon="-111.704730">
        <ele>2246.108</ele>
        <time>2018-12-27T21:05:56Z</time>
      </trkpt>
      <trkpt lat="35.260990" lon="-111.704790">
        <ele>2246.579</ele>
        <time>2018-12-27T21:06:16Z</time>
      </trkpt>
      <trkpt lat="35.261180" lon="-111.704840">
        <ele>2246.897</ele>
        <time>2018-12-27T21:06:36Z</time>
      </trkpt>
      <trkpt lat="35.261310" lon="-111.704860">
        <ele>2247.092</ele>
        <time>2018-12-27T21:06:56Z</time>
      </trkpt>
      <trkpt lat="35.261420" lon="-111.704880">
        <ele>2247.123</ele>
        <time>2018-12-27T21:07:16Z</time>
      </trkpt>
      <trkpt lat="35.261590" lon="-111.704910">
        <ele>2247.348</ele>
        <time>2018-12-27T21:07:36Z</time>
      </trkpt>
      <trkpt lat="35.261810" lon="-111.704950">
        <ele>2247.558</ele>
        <time>2018-12-27T21:07:56Z</time>
      </trkpt>
      <trkpt lat="35.262010" lon="-111.704980">
        <ele>2247.780</ele>
        <time>2018-12-27T21:08:16Z</time>
      </trkpt>
      <trkpt lat="35.262100" lon="-111.704980">
        <ele>2247.844</ele>
        <time>2018-12-27T21:08:36Z</time>
      </trkpt>
      <trkpt lat="35.262190" lon="-111.704990">
        <ele>2247.988</ele>
        <time>2018-12-27T21:08:56Z</time>
      </trkpt>
      <trkpt lat="35.262350" lon="-111.705000">
        <ele>2248.224</ele>
        <time>2018-12-27T21:09:16Z</time>
      </trkpt>
      <trkpt lat="35.262510" lon="-111.705010">
        <ele>2248.426</ele>
        <time>2018-12-27T21:09:36Z</time>
      </trkpt>
      <trkpt lat="35.262560" lon="-111.705010">
        <ele>2248.508</ele>
        <time>2018-12-27T21:09:56Z</time>
      </trkpt>
      <trkpt lat="35.263410" lon="-111.705040">
        <ele>2248.951</ele>
        <time>2018-12-27T21:10:16Z</time>
      </trkpt>
      <trkpt lat="35.263760" lon="-111.705050">
        <ele>2249.369</ele>
        <time>2018-12-27T21:10:36Z</time>
      </trkpt>
      <trkpt lat="35.264420" lon="-111.705070">
        <ele>2250.094</ele>
        <time>2018-12-27T21:10:56Z</time>
      </trkpt>
      <trkpt lat="35.264670" lon="-111.705080">
        <ele>2250.315</ele>
        <time>2018-12-27T21:11:16Z</time>
      </trkpt>
      <trkpt lat="35.264900" lon="-111.705090">
        <ele>2250.730</ele>
        <time>2018-12-27T21:11:36Z</time>
      </trkpt>
      <trkpt lat="35.265080" lon="-111.705100">
        <ele>2251.070</ele>
        <time>2018-12-27T21:11:56Z</time>
      </trkpt>
      <trkpt lat="35.265220" lon="-111.705110">
        <ele>2251.272</ele>
        <time>2018-12-27T21:12:16Z</time>
      </trkpt>
      <trkpt lat="35.265370" lon="-111.705130">
        <ele>2251.396</ele>
        <time>2018-12-27T21:12:36Z</time>
      </trkpt>
      <trkpt lat="35.265500" lon="-111.705140">
        <ele>2251.526</ele>
        <time>2018-12-27T21:12:56Z</time>
      </trkpt>
      <trkpt lat="35.265610" lon="-111.705160">
        <ele>2251.647</ele>
        <time>2018-12-27T21:13:16Z</time>
      </trkpt>
      <trkpt lat="35.265730" lon="-111.705180">
        <ele>2251.811</ele>
        <time>2018-12-27T21:13:36Z</time>
      </trkpt>
      <trkpt lat="35.265800" lon="-111.705200">
        <ele>2251.908</ele>
        <time>2018-12-27T21:13:56Z</time>
      </trkpt>
      <trkpt lat="35.265870" lon="-111.705220">
        <ele>2252.075</ele>
        <time>2018-12-27T21:14:16Z</time>
      </trkpt>
      <trkpt lat="35.265940" lon="-111.705240">
        <ele>2252.143</ele>
        <time>2018-12-27T21:14:36Z</time>
      </trkpt>
      <trkpt lat="35.265990" lon="-111.705250">
        <ele>2252.158</ele>
        <time>2018-12-27T21:14:56Z</time>
      </trkpt>
      <trkpt lat="35.266030" lon="-111.705280">
        <ele>2252.219</ele>
        <time>2018-12-27T21:15:16Z</time>
      </trkpt>
      <trkpt lat="35.266070" lon="-111.705310">
        <ele>2252.284</ele>
        <time>2018-12-27T21:15:36Z</time>
      </trkpt>
      <trkpt lat="35.266150" lon="-111.705330">
        <ele>2252.374</ele>
        <time>2018-12-27T21:15:56Z</time>
      </trkpt>
      <trkpt lat="35.266270" lon="-111.705370">
        <ele>2252.496</ele>
        <time>2018-12-27T21:16:16Z</time>
      </trkpt>
      <trkpt lat="35.266480" lon="-111.705480">
        <ele>2252.770</ele>
        <time>2018-12-27T21:16:36Z</time>
      </trkpt>
      <trkpt lat="35.266670" lon="-111.705590">
        <ele>2253.073</ele>
        <time>2018-12-27T21:16:56Z</time>
      </trkpt>
      <trkpt lat="35.266870" lon="-111.705730">
        <ele>2253.385</ele>
        <time>2018-12-27T21:17:16Z</time>
      </trkpt>
      <trkpt lat="35.267050" lon="-111.705870">
        <ele>2253.613</ele>
        <time>2018-12-27T21:17:36Z</time>
      </trkpt>
      <trkpt lat="35.267170" lon="-111.705970">
        <ele>2253.808</ele>
        <time>2018-12-27T21:17:56Z</time>
      </trkpt>
      <trkpt lat="35.267260" lon="-111.706060">
        <ele>2253.980</ele>
        <time>2018-12-27T21:18:16Z</time>
      </trkpt>
      <trkpt lat="35.267350" lon="-111.706170">
        <ele>2254.168</ele>
        <time>2018-12-27T21:18:36Z</time>
      </trkpt>
      <trkpt lat="35.267430" lon="-111.706260">
        <ele>2254.263</ele>
        <time>2018-12-27T21:18:56Z</time>
      </trkpt>
      <trkpt lat="35.267520" lon="-111.706380">
        <ele>2254.434</ele>
        <time>2018-12-27T21:19:16Z</time>
      </trkpt>
      <trkpt lat="35.267610" lon="-111.706500">
        <ele>2254.669</ele>
        <time>2018-12-27T21:19:36Z</time>
      </trkpt>
      <trkpt lat="35.267730" lon="-111.706680">
        <ele>2254.829</ele>
        <time>2018-12-27T21:19:56Z</time>
      </trkpt>
      <trkpt lat="35.267850" lon="-111.706890">
        <ele>2255.041</ele>
        <time>2018-12-27T21:20:16Z</time>
      </trkpt>
      <trkpt lat="35.267950" lon="-111.707100">
        <ele>2255.275</ele>
        <time>2018-12-27T21:20:36Z</time>
      </trkpt>
      <trkpt lat="35.268010" lon="-111.707220">
        <ele>2255.389</ele>
        <time>2018-12-27T21:20:56Z</time>
      </trkpt>
      <trkpt lat="35.268040" lon="-111.707310">
        <ele>2255.306</ele>
        <time>2018-12-27T21:21:16Z</time>
      </trkpt>
      <trkpt lat="35.268080" lon="-111.707410">
        <ele>2255.426</ele>
        <time>2018-12-27T21:21:36Z</time>
      </trkpt>
      <trkpt lat="35.268120" lon="-111.707530">
        <ele>2255.408</ele>
        <time>2018-12-27T21:21:56Z</time>
      </trkpt>
      <trkpt lat="35.268200" lon="-111.707760">
        <ele>2255.671</ele>
        <time>2018-12-27T21:22:16Z</time>
      </trkpt>
      <trkpt lat="35.268260" lon="-111.708000">
        <ele>2255.799</ele>
        <time>2018-12-27T21:22:36Z</time>
      </trkpt>
      <trkpt lat="35.268290" lon="-111.708180">
        <ele>2255.894</ele>
        <time>2018-12-27T21:22:56Z</time>
      </trkpt>
      <trkpt lat="35.268320" lon="-111.708370">
        <ele>2255.955</ele>
        <time>2018-12-27T21:23:16Z</time>
      </trkpt>
      <trkpt lat="35.268340" lon="-111.708500">
        <ele>2255.940</ele>
        <time>2018-12-27T21:23:36Z</time>
      </trkpt>
      <trkpt lat="35.268350" lon="-111.708640">
        <ele>2255.960</ele>
        <time>2018-12-27T21:23:56Z</time>
      </trkpt>
      <trkpt lat="35.268360" lon="-111.708790">
        <ele>2255.872</ele>
        <time>2018-12-27T21:24:16Z</time>
      </trkpt>
      <trkpt lat="35.268370" lon="-111.709010">
        <ele>2255.876</ele>
        <time>2018-12-27T21:24:36Z</time>
      </trkpt>
      <trkpt lat="35.268370" lon="-111.709620">
        <ele>2255.618</ele>
        <time>2018-12-27T21:24:56Z</time>
      </trkpt>
      <trkpt lat="35.268360" lon="-111.710360">
        <ele>2254.598</ele>
        <time>2018-12-27T21:25:16Z</time>
      </trkpt>
      <trkpt lat="35.268360" lon="-111.711020">
        <ele>2253.117</ele>
        <time>2018-12-27T21:25:36Z</time>
      </trkpt>
      <trkpt lat="35.268360" lon="-111.711570">
        <ele>2251.708</ele>
        <time>2018-12-27T21:25:56Z</time>
      </trkpt>
      <trkpt lat="35.268360" lon="-111.712090">
        <ele>2250.554</ele>
        <time>2018-12-27T21:26:16Z</time>
      </trkpt>
      <trkpt lat="35.268370" lon="-111.712400">
        <ele>2250.052</ele>
        <time>2018-12-27T21:26:36Z</time>
      </trkpt>
      <trkpt lat="35.268370" lon="-111.712520">
        <ele>2249.877</ele>
        <time>2018-12-27T21:26:56Z</time>
      </trkpt>
      <trkpt lat="35.268390" lon="-111.712610">
        <ele>2249.718</ele>
        <time>2018-12-27T21:27:16Z</time>
      </trkpt>
      <trkpt lat="35.268430" lon="-111.713470">
        <ele>2248.113</ele>
        <time>2018-12-27T21:27:36Z</time>
      </trkpt>
      <trkpt lat="35.268470" lon="-111.714130">
        <ele>2246.523</ele>
        <time>2018-12-27T21:27:56Z</time>
      </trkpt>
      <trkpt lat="35.268530" lon="-111.715300">
        <ele>2244.195</ele>
        <time>2018-12-27T21:28:16Z</time>
      </trkpt>
      <trkpt lat="35.268540" lon="-111.715550">
        <ele>2243.989</ele>
        <time>2018-12-27T21:28:36Z</time>
      </trkpt>
      <trkpt lat="35.268550" lon="-111.715750">
        <ele>2243.831</ele>
        <time>2018-12-27T21:28:56Z</time>
      </trkpt>
      <trkpt lat="35.268550" lon="-111.715990">
        <ele>2243.561</ele>
        <time>2018-12-27T21:29:16Z</time>
      </trkpt>
      <trkpt lat="35.268560" lon="-111.716340">
        <ele>2243.007</ele>
        <time>2018-12-27T21:29:36Z</time>
      </trkpt>
      <trkpt lat="35.268550" lon="-111.716400">
        <ele>2242.908</ele>
        <time>2018-12-27T21:29:56Z</time>
      </trkpt>
      <trkpt lat="35.268550" lon="-111.716440">
        <ele>2242.896</ele>
        <time>2018-12-27T21:30:16Z</time>
      </trkpt>
      <trkpt lat="35.268540" lon="-111.716470">
        <ele>2242.714</ele>
        <time>2018-12-27T21:30:36Z</time>
      </trkpt>
      <trkpt lat="35.268520" lon="-111.716520">
        <ele>2242.659</ele>
        <time>2018-12-27T21:30:56Z</time>
      </trkpt>
      <trkpt lat="35.268530" lon="-111.716730">
        <ele>2242.280</ele>
        <time>2018-12-27T21:31:16Z</time>
      </trkpt>
      <trkpt lat="35.268530" lon="-111.717060">
        <ele>2241.615</ele>
        <time>2018-12-27T21:31:36Z</time>
      </trkpt>
      <trkpt lat="35.268530" lon="-111.717710">
        <ele>2240.525</ele>
        <time>2018-12-27T21:31:56Z</time>
      </trkpt>
      <trkpt lat="35.268520" lon="-111.718130">
        <ele>2239.837</ele>
        <time>2018-12-27T21:32:16Z</time>
      </trkpt>
      <trkpt lat="35.268510" lon="-111.718400">
        <ele>2239.461</ele>
        <time>2018-12-27T21:32:36Z</time>
      </trkpt>
      <trkpt lat="35.268510" lon="-111.718720">
        <ele>2238.784</ele>
        <time>2018-12-27T21:32:56Z</time>
      </trkpt>
      <trkpt lat="35.268500" lon="-111.719030">
        <ele>2237.707</ele>
        <time>2018-12-27T21:33:16Z</time>
      </trkpt>
      <trkpt lat="35.268490" lon="-111.719140">
        <ele>2237.417</ele>
        <time>2018-12-27T21:33:36Z</time>
      </trkpt>
      <trkpt lat="35.268470" lon="-111.719730">
        <ele>2235.708</ele>
        <time>2018-12-27T21:33:56Z</time>
      </trkpt>
      <trkpt lat="35.268490" lon="-111.719880">
        <ele>2235.371</ele>
        <time>2018-12-27T21:34:16Z</time>
      </trkpt>
      <trkpt lat="35.268430" lon="-111.721350">
        <ele>2233.519</ele>
        <time>2018-12-27T21:34:36Z</time>
      </trkpt>
      <trkpt lat="35.268400" lon="-111.722300">
        <ele>2234.244</ele>
        <time>2018-12-27T21:34:56Z</time>
      </trkpt>
      <trkpt lat="35.268370" lon="-111.722430">
        <ele>2234.175</ele>
        <time>2018-12-27T21:35:16Z</time>
      </trkpt>
      <trkpt lat="35.268300" lon="-111.724610">
        <ele>2232.390</ele>
        <time>2018-12-27T21:35:36Z</time>
      </trkpt>
      <trkpt lat="35.268240" lon="-111.726660">
        <ele>2232.310</ele>
        <time>2018-12-27T21:35:56Z</time>
      </trkpt>
      <trkpt lat="35.268220" lon="-111.727280">
        <ele>2232.342</ele>
        <time>2018-12-27T21:36:16Z</time>
      </trkpt>
      <trkpt lat="35.268190" lon="-111.727970">
        <ele>2232.216</ele>
        <time>2018-12-27T21:36:36Z</time>
      </trkpt>
      <trkpt lat="35.268130" lon="-111.730130">
        <ele>2232.387</ele>
        <time>2018-12-27T21:36:56Z</time>
      </trkpt>
      <trkpt lat="35.268110" lon="-111.730500">
        <ele>2232.342</ele>
        <time>2018-12-27T21:37:16Z</time>
      </trkpt>
      <trkpt lat="35.268090" lon="-111.731340">
        <ele>2232.326</ele>
        <time>2018-12-27T21:37:36Z</time>
      </trkpt>
      <trkpt lat="35.268060" lon="-111.732220">
        <ele>2232.308</ele>
        <time>2018-12-27T21:37:56Z</time>
      </trkpt>
      <trkpt lat="35.268030" lon="-111.733190">
        <ele>2232.371</ele>
        <time>2018-12-27T21:38:16Z</time>
      </trkpt>
      <trkpt lat="35.267990" lon="-111.734450">
        <ele>2232.969</ele>
        <time>2018-12-27T21:38:36Z</time>
      </trkpt>
      <trkpt lat="35.267920" lon="-111.736800">
        <ele>2232.694</ele>
        <time>2018-12-27T21:38:56Z</time>
      </trkpt>
      <trkpt lat="35.267900" lon="-111.737300">
        <ele>2232.025</ele>
        <time>2018-12-27T21:39:16Z</time>
      </trkpt>
      <trkpt lat="35.267890" lon="-111.737460">
        <ele>2231.920</ele>
        <time>2018-12-27T21:39:36Z</time>
      </trkpt>
      <trkpt lat="35.267880" lon="-111.737960">
        <ele>2231.540</ele>
        <time>2018-12-27T21:39:56Z</time>
      </trkpt>
      <trkpt lat="35.267870" lon="-111.738280">
        <ele>2231.372</ele>
        <time>2018-12-27T21:40:16Z</time>
      </trkpt>
      <trkpt lat="35.267860" lon="-111.738490">
        <ele>2231.366</ele>
        <time>2018-12-27T21:40:36Z</time>
      </trkpt>
      <trkpt lat="35.267860" lon="-111.738670">
        <ele>2231.332</ele>
        <time>2018-12-27T21:40:56Z</time>
      </trkpt>
      <trkpt lat="35.267870" lon="-111.738810">
        <ele>2231.392</ele>
        <time>2018-12-27T21:41:16Z</time>
      </trkpt>
      <trkpt lat="35.267870" lon="-111.738930">
        <ele>2231.311</ele>
        <time>2018-12-27T21:41:36Z</time>
      </trkpt>
      <trkpt lat="35.267880" lon="-111.739020">
        <ele>2231.408</ele>
        <time>2018-12-27T21:41:56Z</time>
      </trkpt>
      <trkpt lat="35.267890" lon="-111.739130">
        <ele>2231.496</ele>
        <time>2018-12-27T21:42:16Z</time>
      </trkpt>
      <trkpt lat="35.267910" lon="-111.739260">
        <ele>2231.464</ele>
        <time>2018-12-27T21:42:36Z</time>
      </trkpt>
      <trkpt lat="35.267930" lon="-111.739390">
        <ele>2231.439</ele>
        <time>2018-12-27T21:42:56Z</time>
      </trkpt>
      <trkpt lat="35.267960" lon="-111.739530">
        <ele>2231.540</ele>
        <time>2018-12-27T21:43:16Z</time>
      </trkpt>
      <trkpt lat="35.268010" lon="-111.739730">
        <ele>2231.635</ele>
        <time>2018-12-27T21:43:36Z</time>
      </trkpt>
      <trkpt lat="35.268050" lon="-111.739860">
        <ele>2231.745</ele>
        <time>2018-12-27T21:43:56Z</time>
      </trkpt>
      <trkpt lat="35.268090" lon="-111.739960">
        <ele>2231.867</ele>
        <time>2018-12-27T21:44:16Z</time>
      </trkpt>
      <trkpt lat="35.268120" lon="-111.740050">
        <ele>2231.891</ele>
        <time>2018-12-27T21:44:36Z</time>
      </trkpt>
      <trkpt lat="35.268180" lon="-111.740190">
        <ele>2231.856</ele>
        <time>2018-12-27T21:44:56Z</time>
      </trkpt>
      <trkpt lat="35.268240" lon="-111.740320">
        <ele>2231.959</ele>
        <time>2018-12-27T21:45:16Z</time>
      </trkpt>
      <trkpt lat="35.268300" lon="-111.740430">
        <ele>2231.914</ele>
        <time>2018-12-27T21:45:36Z</time>
      </trkpt>
      <trkpt lat="35.268360" lon="-111.740540">
        <ele>2232.008</ele>
        <time>2018-12-27T21:45:56Z</time>
      </trkpt>
      <trkpt lat="35.268450" lon="-111.740680">
        <ele>2232.068</ele>
        <time>2018-12-27T21:46:16Z</time>
      </trkpt>
      <trkpt lat="35.268560" lon="-111.740830">
        <ele>2232.146</ele>
        <time>2018-12-27T21:46:36Z</time>
      </trkpt>
      <trkpt lat="35.268660" lon="-111.740960">
        <ele>2232.231</ele>
        <time>2018-12-27T21:46:56Z</time>
      </trkpt>
      <trkpt lat="35.268780" lon="-111.741100">
        <ele>2232.232</ele>
        <time>2018-12-27T21:47:16Z</time>
      </trkpt>
      <trkpt lat="35.268900" lon="-111.741220">
        <ele>2232.487</ele>
        <time>2018-12-27T21:47:36Z</time>
      </trkpt>
      <trkpt lat="35.269030" lon="-111.741360">
        <ele>2232.987</ele>
        <time>2018-12-27T21:47:56Z</time>
      </trkpt>
      <trkpt lat="35.269390" lon="-111.741740">
        <ele>2235.779</ele>
        <time>2018-12-27T21:48:16Z</time>
      </trkpt>
      <trkpt lat="35.269660" lon="-111.742030">
        <ele>2237.553</ele>
        <time>2018-12-27T21:48:36Z</time>
      </trkpt>
      <trkpt lat="35.269830" lon="-111.742200">
        <ele>2238.526</ele>
        <time>2018-12-27T21:48:56Z</time>
      </trkpt>
      <trkpt lat="35.269950" lon="-111.742310">
        <ele>2239.147</ele>
        <time>2018-12-27T21:49:16Z</time>
      </trkpt>
      <trkpt lat="35.270080" lon="-111.742440">
        <ele>2239.811</ele>
        <time>2018-12-27T21:49:36Z</time>
      </trkpt>
      <trkpt lat="35.270200" lon="-111.742540">
        <ele>2240.408</ele>
        <time>2018-12-27T21:49:56Z</time>
      </trkpt>
      <trkpt lat="35.270330" lon="-111.742640">
        <ele>2240.945</ele>
        <time>2018-12-27T21:50:16Z</time>
      </trkpt>
      <trkpt lat="35.270460" lon="-111.742730">
        <ele>2241.643</ele>
        <time>2018-12-27T21:50:36Z</time>
      </trkpt>
      <trkpt lat="35.270600" lon="-111.742810">
        <ele>2242.388</ele>
        <time>2018-12-27T21:50:56Z</time>
      </trkpt>
      <trkpt lat="35.270700" lon="-111.742870">
        <ele>2242.839</ele>
        <time>2018-12-27T21:51:16Z</time>
      </trkpt>
      <trkpt lat="35.270810" lon="-111.742930">
        <ele>2243.394</ele>
        <time>2018-12-27T21:51:36Z</time>
      </trkpt>
      <trkpt lat="35.271010" lon="-111.743030">
        <ele>2244.234</ele>
        <time>2018-12-27T21:51:56Z</time>
      </trkpt>
      <trkpt lat="35.271180" lon="-111.743090">
        <ele>2245.126</ele>
        <time>2018-12-27T21:52:16Z</time>
      </trkpt>
      <trkpt lat="35.271380" lon="-111.743160">
        <ele>2245.960</ele>
        <time>2018-12-27T21:52:36Z</time>
      </trkpt>
      <trkpt lat="35.271520" lon="-111.743210">
        <ele>2246.529</ele>
        <time>2018-12-27T21:52:56Z</time>
      </trkpt>
      <trkpt lat="35.271740" lon="-111.743280">
        <ele>2247.400</ele>
        <time>2018-12-27T21:53:16Z</time>
      </trkpt>
      <trkpt lat="35.271980" lon="-111.743360">
        <ele>2248.720</ele>
        <time>2018-12-27T21:53:36Z</time>
      </trkpt>
      <trkpt lat="35.272240" lon="-111.743440">
        <ele>2250.308</ele>
        <time>2018-12-27T21:53:56Z</time>
      </trkpt>
      <trkpt lat="35.272600" lon="-111.743560">
        <ele>2252.755</ele>
        <time>2018-12-27T21:54:16Z</time>
      </trkpt>
      <trkpt lat="35.272860" lon="-111.743640">
        <ele>2254.253</ele>
        <time>2018-12-27T21:54:36Z</time>
      </trkpt>
      <trkpt lat="35.273120" lon="-111.743730">
        <ele>2255.568</ele>
        <time>2018-12-27T21:54:56Z</time>
      </trkpt>
      <trkpt lat="35.273440" lon="-111.743830">
        <ele>2257.269</ele>
        <time>2018-12-27T21:55:16Z</time>
      </trkpt>
      <trkpt lat="35.273720" lon="-111.743920">
        <ele>2259.244</ele>
        <time>2018-12-27T21:55:36Z</time>
      </trkpt>
      <trkpt lat="35.274010" lon="-111.744010">
        <ele>2261.434</ele>
        <time>2018-12-27T21:55:56Z</time>
      </trkpt>
      <trkpt lat="35.274510" lon="-111.744180">
        <ele>2265.236</ele>
        <time>2018-12-27T21:56:16Z</time>
      </trkpt>
      <trkpt lat="35.274720" lon="-111.744240">
        <ele>2266.640</ele>
        <time>2018-12-27T21:56:36Z</time>
      </trkpt>
      <trkpt lat="35.275000" lon="-111.744330">
        <ele>2268.228</ele>
        <time>2018-12-27T21:56:56Z</time>
      </trkpt>
      <trkpt lat="35.275260" lon="-111.744420">
        <ele>2269.389</ele>
        <time>2018-12-27T21:57:16Z</time>
      </trkpt>
      <trkpt lat="35.275540" lon="-111.744510">
        <ele>2270.117</ele>
        <time>2018-12-27T21:57:36Z</time>
      </trkpt>
      <trkpt lat="35.275760" lon="-111.744580">
        <ele>2270.708</ele>
        <time>2018-12-27T21:57:56Z</time>
      </trkpt>
      <trkpt lat="35.276110" lon="-111.744690">
        <ele>2271.775</ele>
        <time>2018-12-27T21:58:16Z</time>
      </trkpt>
      <trkpt lat="35.276410" lon="-111.744780">
        <ele>2272.553</ele>
        <time>2018-12-27T21:58:36Z</time>
      </trkpt>
      <trkpt lat="35.276650" lon="-111.744860">
        <ele>2273.348</ele>
        <time>2018-12-27T21:58:56Z</time>
      </trkpt>
      <trkpt lat="35.277010" lon="-111.744980">
        <ele>2275.169</ele>
        <time>2018-12-27T21:59:16Z</time>
      </trkpt>
      <trkpt lat="35.277250" lon="-111.745060">
        <ele>2276.464</ele>
        <time>2018-12-27T21:59:36Z</time>
      </trkpt>
      <trkpt lat="35.277470" lon="-111.745130">
        <ele>2277.474</ele>
        <time>2018-12-27T21:59:56Z</time>
      </trkpt>
      <trkpt lat="35.277630" lon="-111.745190">
        <ele>2278.146</ele>
        <time>2018-12-27T22:00:16Z</time>
      </trkpt>
      <trkpt lat="35.277750" lon="-111.745230">
        <ele>2278.620</ele>
        <time>2018-12-27T22:00:36Z</time>
      </trkpt>
      <trkpt lat="35.277910" lon="-111.745290">
        <ele>2279.393</ele>
        <time>2018-12-27T22:00:56Z</time>
      </trkpt>
      <trkpt lat="35.278010" lon="-111.745340">
        <ele>2279.765</ele>
        <time>2018-12-27T22:01:16Z</time>
      </trkpt>
      <trkpt lat="35.278160" lon="-111.745410">
        <ele>2280.321</ele>
        <time>2018-12-27T22:01:36Z</time>
      </trkpt>
      <trkpt lat="35.278310" lon="-111.745490">
        <ele>2280.808</ele>
        <time>2018-12-27T22:01:56Z</time>
      </trkpt>
      <trkpt lat="35.278480" lon="-111.745580">
        <ele>2281.412</ele>
        <time>2018-12-27T22:02:16Z</time>
      </trkpt>
      <trkpt lat="35.278660" lon="-111.745700">
        <ele>2282.090</ele>
        <time>2018-12-27T22:02:36Z</time>
      </trkpt>
      <trkpt lat="35.278790" lon="-111.745780">
        <ele>2282.345</ele>
        <time>2018-12-27T22:02:56Z</time>
      </trkpt>
      <trkpt lat="35.278900" lon="-111.745870">
        <ele>2282.576</ele>
        <time>2018-12-27T22:03:16Z</time>
      </trkpt>
      <trkpt lat="35.279110" lon="-111.746040">
        <ele>2282.991</ele>
        <time>2018-12-27T22:03:36Z</time>
      </trkpt>
      <trkpt lat="35.279270" lon="-111.746180">
        <ele>2283.151</ele>
        <time>2018-12-27T22:03:56Z</time>
      </trkpt>
      <trkpt lat="35.279460" lon="-111.746350">
        <ele>2283.263</ele>
        <time>2018-12-27T22:04:16Z</time>
      </trkpt>
      <trkpt lat="35.279600" lon="-111.746490">
        <ele>2283.127</ele>
        <time>2018-12-27T22:04:36Z</time>
      </trkpt>
      <trkpt lat="35.279700" lon="-111.746590">
        <ele>2283.124</ele>
        <time>2018-12-27T22:04:56Z</time>
      </trkpt>
      <trkpt lat="35.279780" lon="-111.746690">
        <ele>2283.104</ele>
        <time>2018-12-27T22:05:16Z</time>
      </trkpt>
      <trkpt lat="35.279880" lon="-111.746800">
        <ele>2283.214</ele>
        <time>2018-12-27T22:05:36Z</time>
      </trkpt>
      <trkpt lat="35.280000" lon="-111.746950">
        <ele>2283.508</ele>
        <time>2018-12-27T22:05:56Z</time>
      </trkpt>
      <trkpt lat="35.280140" lon="-111.747130">
        <ele>2284.045</ele>
        <time>2018-12-27T22:06:16Z</time>
      </trkpt>
      <trkpt lat="35.280230" lon="-111.747270">
        <ele>2284.733</ele>
        <time>2018-12-27T22:06:36Z</time>
      </trkpt>
      <trkpt lat="35.280330" lon="-111.747410">
        <ele>2285.778</ele>
        <time>2018-12-27T22:06:56Z</time>
      </trkpt>
      <trkpt lat="35.280440" lon="-111.747600">
        <ele>2287.029</ele>
        <time>2018-12-27T22:07:16Z</time>
      </trkpt>
      <trkpt lat="35.280550" lon="-111.747810">
        <ele>2288.464</ele>
        <time>2018-12-27T22:07:36Z</time>
      </trkpt>
      <trkpt lat="35.280700" lon="-111.748090">
        <ele>2290.374</ele>
        <time>2018-12-27T22:07:56Z</time>
      </trkpt>
      <trkpt lat="35.280900" lon="-111.748480">
        <ele>2292.546</ele>
        <time>2018-12-27T22:08:16Z</time>
      </trkpt>
      <trkpt lat="35.281000" lon="-111.748660">
        <ele>2293.420</ele>
        <time>2018-12-27T22:08:36Z</time>
      </trkpt>
      <trkpt lat="35.281090" lon="-111.748800">
        <ele>2293.944</ele>
        <time>2018-12-27T22:08:56Z</time>
      </trkpt>
      <trkpt lat="35.281210" lon="-111.748970">
        <ele>2294.505</ele>
        <time>2018-12-27T22:09:16Z</time>
      </trkpt>
      <trkpt lat="35.281380" lon="-111.749170">
        <ele>2295.115</ele>
        <time>2018-12-27T22:09:36Z</time>
      </trkpt>
      <trkpt lat="35.281500" lon="-111.749280">
        <ele>2295.408</ele>
        <time>2018-12-27T22:09:56Z</time>
      </trkpt>
      <trkpt lat="35.281620" lon="-111.749390">
        <ele>2295.637</ele>
        <time>2018-12-27T22:10:16Z</time>
      </trkpt>
      <trkpt lat="35.281690" lon="-111.749460">
        <ele>2295.695</ele>
        <time>2018-12-27T22:10:36Z</time>
      </trkpt>
      <trkpt lat="35.281770" lon="-111.749530">
        <ele>2295.650</ele>
        <time>2018-12-27T22:10:56Z</time>
      </trkpt>
      <trkpt lat="35.282340" lon="-111.749990">
        <ele>2297.411</ele>
        <time>2018-12-27T22:11:16Z</time>
      </trkpt>
      <trkpt lat="35.282610" lon="-111.750220">
        <ele>2299.296</ele>
        <time>2018-12-27T22:11:36Z</time>
      </trkpt>
      <trkpt lat="35.282760" lon="-111.750350">
        <ele>2300.146</ele>
        <time>2018-12-27T22:11:56Z</time>
      </trkpt>
      <trkpt lat="35.283240" lon="-111.750750">
        <ele>2302.358</ele>
        <time>2018-12-27T22:12:16Z</time>
      </trkpt>
      <trkpt lat="35.283620" lon="-111.751070">
        <ele>2304.362</ele>
        <time>2018-12-27T22:12:36Z</time>
      </trkpt>
      <trkpt lat="35.283720" lon="-111.751160">
        <ele>2304.918</ele>
        <time>2018-12-27T22:12:56Z</time>
      </trkpt>
      <trkpt lat="35.283830" lon="-111.751270">
        <ele>2305.698</ele>
        <time>2018-12-27T22:13:16Z</time>
      </trkpt>
      <trkpt lat="35.283900" lon="-111.751330">
        <ele>2306.217</ele>
        <time>2018-12-27T22:13:36Z</time>
      </trkpt>
      <trkpt lat="35.283990" lon="-111.751430">
        <ele>2307.008</ele>
        <time>2018-12-27T22:13:56Z</time>
      </trkpt>
      <trkpt lat="35.284060" lon="-111.751510">
        <ele>2307.734</ele>
        <time>2018-12-27T22:14:16Z</time>
      </trkpt>
      <trkpt lat="35.284170" lon="-111.751640">
        <ele>2308.822</ele>
        <time>2018-12-27T22:14:36Z</time>
      </trkpt>
      <trkpt lat="35.284310" lon="-111.751830">
        <ele>2309.997</ele>
        <time>2018-12-27T22:14:56Z</time>
      </trkpt>
      <trkpt lat="35.284400" lon="-111.751950">
        <ele>2310.588</ele>
        <time>2018-12-27T22:15:16Z</time>
      </trkpt>
      <trkpt lat="35.284480" lon="-111.752070">
        <ele>2310.913</ele>
        <time>2018-12-27T22:15:36Z</time>
      </trkpt>
      <trkpt lat="35.284550" lon="-111.752190">
        <ele>2311.363</ele>
        <time>2018-12-27T22:15:56Z</time>
      </trkpt>
      <trkpt lat="35.284660" lon="-111.752380">
        <ele>2312.165</ele>
        <time>2018-12-27T22:16:16Z</time>
      </trkpt>
      <trkpt lat="35.284710" lon="-111.752470">
        <ele>2312.519</ele>
        <time>2018-12-27T22:16:36Z</time>
      </trkpt>
      <trkpt lat="35.284770" lon="-111.752590">
        <ele>2313.011</ele>
        <time>2018-12-27T22:16:56Z</time>
      </trkpt>
      <trkpt lat="35.284830" lon="-111.752720">
        <ele>2313.221</ele>
        <time>2018-12-27T22:17:16Z</time>
      </trkpt>
      <trkpt lat="35.284910" lon="-111.752920">
        <ele>2313.403</ele>
        <time>2018-12-27T22:17:36Z</time>
      </trkpt>
      <trkpt lat="35.284980" lon="-111.753120">
        <ele>2313.708</ele>
        <time>2018-12-27T22:17:56Z</time>
      </trkpt>
      <trkpt lat="35.285040" lon="-111.753290">
        <ele>2314.454</ele>
        <time>2018-12-27T22:18:16Z</time>
      </trkpt>
      <trkpt lat="35.285090" lon="-111.753450">
        <ele>2315.282</ele>
        <time>2018-12-27T22:18:36Z</time>
      </trkpt>
      <trkpt lat="35.285160" lon="-111.753720">
        <ele>2316.387</ele>
        <time>2018-12-27T22:18:56Z</time>
      </trkpt>
      <trkpt lat="35.285260" lon="-111.754140">
        <ele>2317.748</ele>
        <time>2018-12-27T22:19:16Z</time>
      </trkpt>
      <trkpt lat="35.285390" lon="-111.754680">
        <ele>2320.083</ele>
        <time>2018-12-27T22:19:36Z</time>
      </trkpt>
      <trkpt lat="35.285590" lon="-111.755510">
        <ele>2322.123</ele>
        <time>2018-12-27T22:19:56Z</time>
      </trkpt>
      <trkpt lat="35.285860" lon="-111.756620">
        <ele>2323.785</ele>
        <time>2018-12-27T22:20:16Z</time>
      </trkpt>
      <trkpt lat="35.286020" lon="-111.757250">
        <ele>2325.829</ele>
        <time>2018-12-27T22:20:36Z</time>
      </trkpt>
      <trkpt lat="35.286070" lon="-111.757460">
        <ele>2326.362</ele>
        <time>2018-12-27T22:20:56Z</time>
      </trkpt>
      <trkpt lat="35.286120" lon="-111.757660">
        <ele>2326.983</ele>
        <time>2018-12-27T22:21:16Z</time>
      </trkpt>
      <trkpt lat="35.286190" lon="-111.757910">
        <ele>2327.611</ele>
        <time>2018-12-27T22:21:36Z</time>
      </trkpt>
      <trkpt lat="35.286270" lon="-111.758150">
        <ele>2328.208</ele>
        <time>2018-12-27T22:21:56Z</time>
      </trkpt>
      <trkpt lat="35.286340" lon="-111.758340">
        <ele>2328.469</ele>
        <time>2018-12-27T22:22:16Z</time>
      </trkpt>
      <trkpt lat="35.286510" lon="-111.758800">
        <ele>2328.767</ele>
        <time>2018-12-27T22:22:36Z</time>
      </trkpt>
      <trkpt lat="35.286630" lon="-111.759090">
        <ele>2329.682</ele>
        <time>2018-12-27T22:22:56Z</time>
      </trkpt>
      <trkpt lat="35.286820" lon="-111.759500">
        <ele>2331.173</ele>
        <time>2018-12-27T22:23:16Z</time>
      </trkpt>
      <trkpt lat="35.287160" lon="-111.760220">
        <ele>2332.158</ele>
        <time>2018-12-27T22:23:36Z</time>
      </trkpt>
      <trkpt lat="35.287250" lon="-111.760400">
        <ele>2332.848</ele>
        <time>2018-12-27T22:23:56Z</time>
      </trkpt>
      <trkpt lat="35.287330" lon="-111.760550">
        <ele>2333.780</ele>
        <time>2018-12-27T22:24:16Z</time>
      </trkpt>
      <trkpt lat="35.287400" lon="-111.760670">
        <ele>2334.324</ele>
        <time>2018-12-27T22:24:36Z</time>
      </trkpt>
      <trkpt lat="35.287440" lon="-111.760750">
        <ele>2334.675</ele>
        <time>2018-12-27T22:24:56Z</time>
      </trkpt>
      <trkpt lat="35.287500" lon="-111.760860">
        <ele>2335.128</ele>
        <time>2018-12-27T22:25:16Z</time>
      </trkpt>
      <trkpt lat="35.287570" lon="-111.760970">
        <ele>2335.620</ele>
        <time>2018-12-27T22:25:36Z</time>
      </trkpt>
      <trkpt lat="35.287650" lon="-111.761090">
        <ele>2336.208</ele>
        <time>2018-12-27T22:25:56Z</time>
      </trkpt>
      <trkpt lat="35.287750" lon="-111.761220">
        <ele>2336.910</ele>
        <time>2018-12-27T22:26:16Z</time>
      </trkpt>
      <trkpt lat="35.287840" lon="-111.761350">
        <ele>2337.558</ele>
        <time>2018-12-27T22:26:36Z</time>
      </trkpt>
      <trkpt lat="35.287980" lon="-111.761510">
        <ele>2338.333</ele>
        <time>2018-12-27T22:26:56Z</time>
      </trkpt>
      <trkpt lat="35.288090" lon="-111.761630">
        <ele>2339.094</ele>
        <time>2018-12-27T22:27:16Z</time>
      </trkpt>
      <trkpt lat="35.288260" lon="-111.761800">
        <ele>2339.959</ele>
        <time>2018-12-27T22:27:36Z</time>
      </trkpt>
      <trkpt lat="35.288470" lon="-111.761980">
        <ele>2341.199</ele>
        <time>2018-12-27T22:27:56Z</time>
      </trkpt>
      <trkpt lat="35.288620" lon="-111.762090">
        <ele>2341.841</ele>
        <time>2018-12-27T22:28:16Z</time>
      </trkpt>
      <trkpt lat="35.288840" lon="-111.762250">
        <ele>2342.395</ele>
        <time>2018-12-27T22:28:36Z</time>
      </trkpt>
      <trkpt lat="35.289100" lon="-111.762400">
        <ele>2342.674</ele>
        <time>2018-12-27T22:28:56Z</time>
      </trkpt>
      <trkpt lat="35.289310" lon="-111.762500">
        <ele>2342.756</ele>
        <time>2018-12-27T22:29:16Z</time>
      </trkpt>
      <trkpt lat="35.289520" lon="-111.762600">
        <ele>2342.721</ele>
        <time>2018-12-27T22:29:36Z</time>
      </trkpt>
      <trkpt lat="35.289760" lon="-111.762710">
        <ele>2342.608</ele>
        <time>2018-12-27T22:29:56Z</time>
      </trkpt>
      <trkpt lat="35.290230" lon="-111.762920">
        <ele>2343.310</ele>
        <time>2018-12-27T22:30:16Z</time>
      </trkpt>
      <trkpt lat="35.290670" lon="-111.763120">
        <ele>2343.858</ele>
        <time>2018-12-27T22:30:36Z</time>
      </trkpt>
      <trkpt lat="35.291190" lon="-111.763360">
        <ele>2344.163</ele>
        <time>2018-12-27T22:30:56Z</time>
      </trkpt>
      <trkpt lat="35.291780" lon="-111.763630">
        <ele>2347.094</ele>
        <time>2018-12-27T22:31:16Z</time>
      </trkpt>
      <trkpt lat="35.292590" lon="-111.764000">
        <ele>2352.259</ele>
        <time>2018-12-27T22:31:36Z</time>
      </trkpt>
      <trkpt lat="35.293290" lon="-111.764330">
        <ele>2354.749</ele>
        <time>2018-12-27T22:31:56Z</time>
      </trkpt>
      <trkpt lat="35.293650" lon="-111.764490">
        <ele>2355.641</ele>
        <time>2018-12-27T22:32:16Z</time>
      </trkpt>
      <trkpt lat="35.294240" lon="-111.764760">
        <ele>2357.535</ele>
        <time>2018-12-27T22:32:36Z</time>
      </trkpt>
      <trkpt lat="35.294650" lon="-111.764950">
        <ele>2358.271</ele>
        <time>2018-12-27T22:32:56Z</time>
      </trkpt>
      <trkpt lat="35.294790" lon="-111.765020">
        <ele>2358.341</ele>
        <time>2018-12-27T22:33:16Z</time>
      </trkpt>
      <trkpt lat="35.295030" lon="-111.765130">
        <ele>2358.415</ele>
        <time>2018-12-27T22:33:36Z</time>
      </trkpt>
      <trkpt lat="35.295420" lon="-111.765300">
        <ele>2358.708</ele>
        <time>2018-12-27T22:33:56Z</time>
      </trkpt>
      <trkpt lat="35.295600" lon="-111.765390">
        <ele>2358.820</ele>
        <time>2018-12-27T22:34:16Z</time>
      </trkpt>
      <trkpt lat="35.295710" lon="-111.765430">
        <ele>2358.968</ele>
        <time>2018-12-27T22:34:36Z</time>
      </trkpt>
      <trkpt lat="35.295930" lon="-111.765520">
        <ele>2359.383</ele>
        <time>2018-12-27T22:34:56Z</time>
      </trkpt>
      <trkpt lat="35.296010" lon="-111.765550">
        <ele>2359.524</ele>
        <time>2018-12-27T22:35:16Z</time>
      </trkpt>
      <trkpt lat="35.296110" lon="-111.765580">
        <ele>2359.829</ele>
        <time>2018-12-27T22:35:36Z</time>
      </trkpt>
      <trkpt lat="35.296220" lon="-111.765620">
        <ele>2360.239</ele>
        <time>2018-12-27T22:35:56Z</time>
      </trkpt>
      <trkpt lat="35.296380" lon="-111.765660">
        <ele>2360.851</ele>
        <time>2018-12-27T22:36:16Z</time>
      </trkpt>
      <trkpt lat="35.296500" lon="-111.765680">
        <ele>2361.235</ele>
        <time>2018-12-27T22:36:36Z</time>
      </trkpt>
      <trkpt lat="35.296570" lon="-111.765690">
        <ele>2361.447</ele>
        <time>2018-12-27T22:36:56Z</time>
      </trkpt>
      <trkpt lat="35.296660" lon="-111.765710">
        <ele>2361.529</ele>
        <time>2018-12-27T22:37:16Z</time>
      </trkpt>
      <trkpt lat="35.296740" lon="-111.765720">
        <ele>2361.621</ele>
        <time>2018-12-27T22:37:36Z</time>
      </trkpt>
      <trkpt lat="35.296830" lon="-111.765720">
        <ele>2361.808</ele>
        <time>2018-12-27T22:37:56Z</time>
      </trkpt>
      <trkpt lat="35.296910" lon="-111.765730">
        <ele>2361.947</ele>
        <time>2018-12-27T22:38:16Z</time>
      </trkpt>
      <trkpt lat="35.297040" lon="-111.765730">
        <ele>2362.185</ele>
        <time>2018-12-27T22:38:36Z</time>
      </trkpt>
      <trkpt lat="35.297200" lon="-111.765720">
        <ele>2362.430</ele>
        <time>2018-12-27T22:38:56Z</time>
      </trkpt>
      <trkpt lat="35.298030" lon="-111.765690">
        <ele>2362.751</ele>
        <time>2018-12-27T22:39:16Z</time>
      </trkpt>
      <trkpt lat="35.298090" lon="-111.765680">
        <ele>2362.816</ele>
        <time>2018-12-27T22:39:36Z</time>
      </trkpt>
      <trkpt lat="35.298270" lon="-111.765680">
        <ele>2362.536</ele>
        <time>2018-12-27T22:39:56Z</time>
      </trkpt>
      <trkpt lat="35.298390" lon="-111.765670">
        <ele>2362.498</ele>
        <time>2018-12-27T22:40:16Z</time>
      </trkpt>
      <trkpt lat="35.298500" lon="-111.765670">
        <ele>2362.322</ele>
        <time>2018-12-27T22:40:36Z</time>
      </trkpt>
      <trkpt lat="35.298640" lon="-111.765670">
        <ele>2362.258</ele>
        <time>2018-12-27T22:40:56Z</time>
      </trkpt>
      <trkpt lat="35.298760" lon="-111.765680">
        <ele>2362.052</ele>
        <time>2018-12-27T22:41:16Z</time>
      </trkpt>
      <trkpt lat="35.298890" lon="-111.765690">
        <ele>2361.917</ele>
        <time>2018-12-27T22:41:36Z</time>
      </trkpt>
      <trkpt lat="35.299050" lon="-111.765720">
        <ele>2361.608</ele>
        <time>2018-12-27T22:41:56Z</time>
      </trkpt>
      <trkpt lat="35.299160" lon="-111.765750">
        <ele>2361.678</ele>
        <time>2018-12-27T22:42:16Z</time>
      </trkpt>
      <trkpt lat="35.299250" lon="-111.765780">
        <ele>2361.616</ele>
        <time>2018-12-27T22:42:36Z</time>
      </trkpt>
      <trkpt lat="35.299350" lon="-111.765810">
        <ele>2361.811</ele>
        <time>2018-12-27T22:42:56Z</time>
      </trkpt>
      <trkpt lat="35.299410" lon="-111.765840">
        <ele>2362.262</ele>
        <time>2018-12-27T22:43:16Z</time>
      </trkpt>
      <trkpt lat="35.299490" lon="-111.765880">
        <ele>2362.617</ele>
        <time>2018-12-27T22:43:36Z</time>
      </trkpt>
      <trkpt lat="35.299550" lon="-111.765910">
        <ele>2362.987</ele>
        <time>2018-12-27T22:43:56Z</time>
      </trkpt>
      <trkpt lat="35.299640" lon="-111.765960">
        <ele>2363.339</ele>
        <time>2018-12-27T22:44:16Z</time>
      </trkpt>
      <trkpt lat="35.299760" lon="-111.766030">
        <ele>2364.073</ele>
        <time>2018-12-27T22:44:36Z</time>
      </trkpt>
      <trkpt lat="35.299890" lon="-111.766110">
        <ele>2364.796</ele>
        <time>2018-12-27T22:44:56Z</time>
      </trkpt>
      <trkpt lat="35.300090" lon="-111.766230">
        <ele>2365.631</ele>
        <time>2018-12-27T22:45:16Z</time>
      </trkpt>
      <trkpt lat="35.300330" lon="-111.766390">
        <ele>2367.124</ele>
        <time>2018-12-27T22:45:36Z</time>
      </trkpt>
      <trkpt lat="35.300680" lon="-111.766610">
        <ele>2368.708</ele>
        <time>2018-12-27T22:45:56Z</time>
      </trkpt>
      <trkpt lat="35.301410" lon="-111.767060">
        <ele>2370.762</ele>
        <time>2018-12-27T22:46:16Z</time>
      </trkpt>
      <trkpt lat="35.301880" lon="-111.767350">
        <ele>2373.470</ele>
        <time>2018-12-27T22:46:36Z</time>
      </trkpt>
      <trkpt lat="35.302090" lon="-111.767490">
        <ele>2375.685</ele>
        <time>2018-12-27T22:46:56Z</time>
      </trkpt>
      <trkpt lat="35.302380" lon="-111.767670">
        <ele>2378.526</ele>
        <time>2018-12-27T22:47:16Z</time>
      </trkpt>
      <trkpt lat="35.302550" lon="-111.767770">
        <ele>2380.051</ele>
        <time>2018-12-27T22:47:36Z</time>
      </trkpt>
      <trkpt lat="35.302720" lon="-111.767890">
        <ele>2381.531</ele>
        <time>2018-12-27T22:47:56Z</time>
      </trkpt>
      <trkpt lat="35.302980" lon="-111.768060">
        <ele>2383.653</ele>
        <time>2018-12-27T22:48:16Z</time>
      </trkpt>
      <trkpt lat="35.303250" lon="-111.768250">
        <ele>2385.297</ele>
        <time>2018-12-27T22:48:36Z</time>
      </trkpt>
      <trkpt lat="35.303530" lon="-111.768450">
        <ele>2386.021</ele>
        <time>2018-12-27T22:48:56Z</time>
      </trkpt>
      <trkpt lat="35.303740" lon="-111.768610">
        <ele>2386.441</ele>
        <time>2018-12-27T22:49:16Z</time>
      </trkpt>
      <trkpt lat="35.304110" lon="-111.768920">
        <ele>2387.305</ele>
        <time>2018-12-27T22:49:36Z</time>
      </trkpt>
      <trkpt lat="35.304310" lon="-111.769090">
        <ele>2388.208</ele>
        <time>2018-12-27T22:49:56Z</time>
      </trkpt>
      <trkpt lat="35.304590" lon="-111.769320">
        <ele>2389.625</ele>
        <time>2018-12-27T22:50:16Z</time>
      </trkpt>
      <trkpt lat="35.304900" lon="-111.769620">
        <ele>2392.083</ele>
        <time>2018-12-27T22:50:36Z</time>
      </trkpt>
      <trkpt lat="35.305220" lon="-111.769920">
        <ele>2395.098</ele>
        <time>2018-12-27T22:50:56Z</time>
      </trkpt>
      <trkpt lat="35.305600" lon="-111.770310">
        <ele>2398.129</ele>
        <time>2018-12-27T22:51:16Z</time>
      </trkpt>
      <trkpt lat="35.305960" lon="-111.770690">
        <ele>2401.164</ele>
        <time>2018-12-27T22:51:36Z</time>
      </trkpt>
      <trkpt lat="35.306210" lon="-111.770930">
        <ele>2402.324</ele>
        <time>2018-12-27T22:51:56Z</time>
      </trkpt>
      <trkpt lat="35.306340" lon="-111.771070">
        <ele>2403.366</ele>
        <time>2018-12-27T22:52:16Z</time>
      </trkpt>
      <trkpt lat="35.306760" lon="-111.771500">
        <ele>2405.460</ele>
        <time>2018-12-27T22:52:36Z</time>
      </trkpt>
      <trkpt lat="35.307080" lon="-111.771830">
        <ele>2405.568</ele>
        <time>2018-12-27T22:52:56Z</time>
      </trkpt>
      <trkpt lat="35.307330" lon="-111.772080">
        <ele>2405.542</ele>
        <time>2018-12-27T22:53:16Z</time>
      </trkpt>
      <trkpt lat="35.307690" lon="-111.772460">
        <ele>2406.626</ele>
        <time>2018-12-27T22:53:36Z</time>
      </trkpt>
      <trkpt lat="35.307950" lon="-111.772720">
        <ele>2407.508</ele>
        <time>2018-12-27T22:53:56Z</time>
      </trkpt>
      <trkpt lat="35.308230" lon="-111.773000">
        <ele>2409.059</ele>
        <time>2018-12-27T22:54:16Z</time>
      </trkpt>
      <trkpt lat="35.308530" lon="-111.773300">
        <ele>2410.627</ele>
        <time>2018-12-27T22:54:36Z</time>
      </trkpt>
      <trkpt lat="35.308740" lon="-111.773510">
        <ele>2411.512</ele>
        <time>2018-12-27T22:54:56Z</time>
      </trkpt>
      <trkpt lat="35.308960" lon="-111.773740">
        <ele>2412.773</ele>
        <time>2018-12-27T22:55:16Z</time>
      </trkpt>
      <trkpt lat="35.309050" lon="-111.773830">
        <ele>2413.348</ele>
        <time>2018-12-27T22:55:36Z</time>
      </trkpt>
      <trkpt lat="35.309130" lon="-111.773900">
        <ele>2414.018</ele>
        <time>2018-12-27T22:55:56Z</time>
      </trkpt>
      <trkpt lat="35.309220" lon="-111.773980">
        <ele>2414.730</ele>
        <time>2018-12-27T22:56:16Z</time>
      </trkpt>
      <trkpt lat="35.309320" lon="-111.774060">
        <ele>2415.534</ele>
        <time>2018-12-27T22:56:36Z</time>
      </trkpt>
      <trkpt lat="35.309410" lon="-111.774120">
        <ele>2415.974</ele>
        <time>2018-12-27T22:56:56Z</time>
      </trkpt>
      <trkpt lat="35.309460" lon="-111.774160">
        <ele>2416.156</ele>
        <time>2018-12-27T22:57:16Z</time>
      </trkpt>
      <trkpt lat="35.309520" lon="-111.774200">
        <ele>2416.321</ele>
        <time>2018-12-27T22:57:36Z</time>
      </trkpt>
      <trkpt lat="35.309620" lon="-111.774260">
        <ele>2416.708</ele>
        <time>2018-12-27T22:57:56Z</time>
      </trkpt>
      <trkpt lat="35.309730" lon="-111.774310">
        <ele>2417.210</ele>
        <time>2018-12-27T22:58:16Z</time>
      </trkpt>
      <trkpt lat="35.309820" lon="-111.774350">
        <ele>2417.618</ele>
        <time>2018-12-27T22:58:36Z</time>
      </trkpt>
      <trkpt lat="35.309910" lon="-111.774390">
        <ele>2418.133</ele>
        <time>2018-12-27T22:58:56Z</time>
      </trkpt>
      <trkpt lat="35.310000" lon="-111.774420">
        <ele>2418.684</ele>
        <time>2018-12-27T22:59:16Z</time>
      </trkpt>
      <trkpt lat="35.310080" lon="-111.774440">
        <ele>2419.079</ele>
        <time>2018-12-27T22:59:36Z</time>
      </trkpt>
      <trkpt lat="35.310200" lon="-111.774480">
        <ele>2419.749</ele>
        <time>2018-12-27T22:59:56Z</time>
      </trkpt>
      <trkpt lat="35.310310" lon="-111.774510">
        <ele>2420.441</ele>
        <time>2018-12-27T23:00:16Z</time>
      </trkpt>
      <trkpt lat="35.310470" lon="-111.774550">
        <ele>2421.355</ele>
        <time>2018-12-27T23:00:36Z</time>
      </trkpt>
      <trkpt lat="35.311200" lon="-111.774720">
        <ele>2423.461</ele>
        <time>2018-12-27T23:00:56Z</time>
      </trkpt>
      <trkpt lat="35.311590" lon="-111.774820">
        <ele>2424.521</ele>
        <time>2018-12-27T23:01:16Z</time>
      </trkpt>
      <trkpt lat="35.312180" lon="-111.774960">
        <ele>2426.413</ele>
        <time>2018-12-27T23:01:36Z</time>
      </trkpt>
      <trkpt lat="35.312480" lon="-111.775040">
        <ele>2427.708</ele>
        <time>2018-12-27T23:01:56Z</time>
      </trkpt>
      <trkpt lat="35.313020" lon="-111.775170">
        <ele>2430.329</ele>
        <time>2018-12-27T23:02:16Z</time>
      </trkpt>
      <trkpt lat="35.313240" lon="-111.775210">
        <ele>2431.317</ele>
        <time>2018-12-27T23:02:36Z</time>
      </trkpt>
      <trkpt lat="35.313430" lon="-111.775250">
        <ele>2432.082</ele>
        <time>2018-12-27T23:02:56Z</time>
      </trkpt>
      <trkpt lat="35.313590" lon="-111.775280">
        <ele>2432.593</ele>
        <time>2018-12-27T23:03:16Z</time>
      </trkpt>
      <trkpt lat="35.313740" lon="-111.775290">
        <ele>2432.958</ele>
        <time>2018-12-27T23:03:36Z</time>
      </trkpt>
      <trkpt lat="35.313890" lon="-111.775310">
        <ele>2433.418</ele>
        <time>2018-12-27T23:03:56Z</time>
      </trkpt>
      <trkpt lat="35.314080" lon="-111.775330">
        <ele>2433.880</ele>
        <time>2018-12-27T23:04:16Z</time>
      </trkpt>
      <trkpt lat="35.314250" lon="-111.775340">
        <ele>2434.144</ele>
        <time>2018-12-27T23:04:36Z</time>
      </trkpt>
      <trkpt lat="35.314330" lon="-111.775340">
        <ele>2434.251</ele>
        <time>2018-12-27T23:04:56Z</time>
      </trkpt>
      <trkpt lat="35.314450" lon="-111.775340">
        <ele>2434.301</ele>
        <time>2018-12-27T23:05:16Z</time>
      </trkpt>
      <trkpt lat="35.314540" lon="-111.775330">
        <ele>2434.511</ele>
        <time>2018-12-27T23:05:36Z</time>
      </trkpt>
      <trkpt lat="35.314690" lon="-111.775330">
        <ele>2434.708</ele>
        <time>2018-12-27T23:05:56Z</time>
      </trkpt>
      <trkpt lat="35.314820" lon="-111.775330">
        <ele>2434.858</ele>
        <time>2018-12-27T23:06:16Z</time>
      </trkpt>
      <trkpt lat="35.315390" lon="-111.775280">
        <ele>2436.026</ele>
        <time>2018-12-27T23:06:36Z</time>
      </trkpt>
      <trkpt lat="35.316180" lon="-111.775220">
        <ele>2437.511</ele>
        <time>2018-12-27T23:06:56Z</time>
      </trkpt>
      <trkpt lat="35.317360" lon="-111.775110">
        <ele>2438.352</ele>
        <time>2018-12-27T23:07:16Z</time>
      </trkpt>
      <trkpt lat="35.318260" lon="-111.775020">
        <ele>2438.517</ele>
        <time>2018-12-27T23:07:36Z</time>
      </trkpt>
      <trkpt lat="35.318430" lon="-111.775010">
        <ele>2438.597</ele>
        <time>2018-12-27T23:07:56Z</time>
      </trkpt>
      <trkpt lat="35.318560" lon="-111.774990">
        <ele>2438.439</ele>
        <time>2018-12-27T23:08:16Z</time>
      </trkpt>
      <trkpt lat="35.318680" lon="-111.774980">
        <ele>2438.453</ele>
        <time>2018-12-27T23:08:36Z</time>
      </trkpt>
      <trkpt lat="35.318830" lon="-111.774950">
        <ele>2438.396</ele>
        <time>2018-12-27T23:08:56Z</time>
      </trkpt>
      <trkpt lat="35.318910" lon="-111.774940">
        <ele>2438.331</ele>
        <time>2018-12-27T23:09:16Z</time>
      </trkpt>
      <trkpt lat="35.318990" lon="-111.774930">
        <ele>2438.224</ele>
        <time>2018-12-27T23:09:36Z</time>
      </trkpt>
      <trkpt lat="35.319060" lon="-111.774910">
        <ele>2438.108</ele>
        <time>2018-12-27T23:09:56Z</time>
      </trkpt>
      <trkpt lat="35.319130" lon="-111.774890">
        <ele>2437.962</ele>
        <time>2018-12-27T23:10:16Z</time>
      </trkpt>
      <trkpt lat="35.319270" lon="-111.774860">
        <ele>2437.520</ele>
        <time>2018-12-27T23:10:36Z</time>
      </trkpt>
      <trkpt lat="35.319390" lon="-111.774820">
        <ele>2437.265</ele>
        <time>2018-12-27T23:10:56Z</time>
      </trkpt>
      <trkpt lat="35.319550" lon="-111.774780">
        <ele>2436.756</ele>
        <time>2018-12-27T23:11:16Z</time>
      </trkpt>
      <trkpt lat="35.319730" lon="-111.774720">
        <ele>2436.341</ele>
        <time>2018-12-27T23:11:36Z</time>
      </trkpt>
      <trkpt lat="35.319960" lon="-111.774640">
        <ele>2435.961</ele>
        <time>2018-12-27T23:11:56Z</time>
      </trkpt>
      <trkpt lat="35.320090" lon="-111.774590">
        <ele>2435.743</ele>
        <time>2018-12-27T23:12:16Z</time>
      </trkpt>
      <trkpt lat="35.320230" lon="-111.774530">
        <ele>2435.697</ele>
        <time>2018-12-27T23:12:36Z</time>
      </trkpt>
      <trkpt lat="35.320580" lon="-111.774380">
        <ele>2435.558</ele>
        <time>2018-12-27T23:12:56Z</time>
      </trkpt>
      <trkpt lat="35.321940" lon="-111.773780">
        <ele>2434.152</ele>
        <time>2018-12-27T23:13:16Z</time>
      </trkpt>
      <trkpt lat="35.322220" lon="-111.773660">
        <ele>2434.117</ele>
        <time>2018-12-27T23:13:36Z</time>
      </trkpt>
      <trkpt lat="35.323350" lon="-111.773160">
        <ele>2433.808</ele>
        <time>2018-12-27T23:13:56Z</time>
      </trkpt>
      <trkpt lat="35.323500" lon="-111.773100">
        <ele>2433.768</ele>
        <time>2018-12-27T23:14:16Z</time>
      </trkpt>
      <trkpt lat="35.323660" lon="-111.773040">
        <ele>2433.576</ele>
        <time>2018-12-27T23:14:36Z</time>
      </trkpt>
      <trkpt lat="35.323730" lon="-111.773020">
        <ele>2433.441</ele>
        <time>2018-12-27T23:14:56Z</time>
      </trkpt>
      <trkpt lat="35.323830" lon="-111.772990">
        <ele>2433.192</ele>
        <time>2018-12-27T23:15:16Z</time>
      </trkpt>
      <trkpt lat="35.323920" lon="-111.772970">
        <ele>2432.857</ele>
        <time>2018-12-27T23:15:36Z</time>
      </trkpt>
      <trkpt lat="35.324010" lon="-111.772960">
        <ele>2432.597</ele>
        <time>2018-12-27T23:15:56Z</time>
      </trkpt>
      <trkpt lat="35.324110" lon="-111.772950">
        <ele>2432.249</ele>
        <time>2018-12-27T23:16:16Z</time>
      </trkpt>
      <trkpt lat="35.324240" lon="-111.772940">
        <ele>2431.883</ele>
        <time>2018-12-27T23:16:36Z</time>
      </trkpt>
      <trkpt lat="35.324370" lon="-111.772940">
        <ele>2431.579</ele>
        <time>2018-12-27T23:16:56Z</time>
      </trkpt>
      <trkpt lat="35.324540" lon="-111.772950">
        <ele>2431.105</ele>
        <time>2018-12-27T23:17:16Z</time>
      </trkpt>
      <trkpt lat="35.324680" lon="-111.772970">
        <ele>2430.825</ele>
        <time>2018-12-27T23:17:36Z</time>
      </trkpt>
      <trkpt lat="35.324780" lon="-111.772990">
        <ele>2430.508</ele>
        <time>2018-12-27T23:17:56Z</time>
      </trkpt>
      <trkpt lat="35.324910" lon="-111.773020">
        <ele>2430.370</ele>
        <time>2018-12-27T23:18:16Z</time>
      </trkpt>
      <trkpt lat="35.325040" lon="-111.773060">
        <ele>2430.048</ele>
        <time>2018-12-27T23:18:36Z</time>
      </trkpt>
      <trkpt lat="35.325140" lon="-111.773100">
        <ele>2429.853</ele>
        <time>2018-12-27T23:18:56Z</time>
      </trkpt>
      <trkpt lat="35.325300" lon="-111.773170">
        <ele>2429.474</ele>
        <time>2018-12-27T23:19:16Z</time>
      </trkpt>
      <trkpt lat="35.325410" lon="-111.773230">
        <ele>2429.129</ele>
        <time>2018-12-27T23:19:36Z</time>
      </trkpt>
      <trkpt lat="35.325470" lon="-111.773260">
        <ele>2428.939</ele>
        <time>2018-12-27T23:19:56Z</time>
      </trkpt>
      <trkpt lat="35.325540" lon="-111.773300">
        <ele>2428.761</ele>
        <time>2018-12-27T23:20:16Z</time>
      </trkpt>
      <trkpt lat="35.325610" lon="-111.773350">
        <ele>2428.645</ele>
        <time>2018-12-27T23:20:36Z</time>
      </trkpt>
      <trkpt lat="35.325680" lon="-111.773400">
        <ele>2428.411</ele>
        <time>2018-12-27T23:20:56Z</time>
      </trkpt>
      <trkpt lat="35.325770" lon="-111.773470">
        <ele>2428.221</ele>
        <time>2018-12-27T23:21:16Z</time>
      </trkpt>
      <trkpt lat="35.325880" lon="-111.773570">
        <ele>2427.903</ele>
        <time>2018-12-27T23:21:36Z</time>
      </trkpt>
      <trkpt lat="35.325990" lon="-111.773670">
        <ele>2427.608</ele>
        <time>2018-12-27T23:21:56Z</time>
      </trkpt>
      <trkpt lat="35.326090" lon="-111.773780">
        <ele>2427.324</ele>
        <time>2018-12-27T23:22:16Z</time>
      </trkpt>
      <trkpt lat="35.326170" lon="-111.773870">
        <ele>2427.142</ele>
        <time>2018-12-27T23:22:36Z</time>
      </trkpt>
      <trkpt lat="35.326620" lon="-111.774410">
        <ele>2425.577</ele>
        <time>2018-12-27T23:22:56Z</time>
      </trkpt>
      <trkpt lat="35.327100" lon="-111.775000">
        <ele>2423.768</ele>
        <time>2018-12-27T23:23:16Z</time>
      </trkpt>
      <trkpt lat="35.327510" lon="-111.775490">
        <ele>2422.463</ele>
        <time>2018-12-27T23:23:36Z</time>
      </trkpt>
      <trkpt lat="35.327770" lon="-111.775810">
        <ele>2422.173</ele>
        <time>2018-12-27T23:23:56Z</time>
      </trkpt>
      <trkpt lat="35.328140" lon="-111.776250">
        <ele>2422.165</ele>
        <time>2018-12-27T23:24:16Z</time>
      </trkpt>
      <trkpt lat="35.328280" lon="-111.776420">
        <ele>2422.029</ele>
        <time>2018-12-27T23:24:36Z</time>
      </trkpt>
      <trkpt lat="35.328510" lon="-111.776700">
        <ele>2421.958</ele>
        <time>2018-12-27T23:24:56Z</time>
      </trkpt>
      <trkpt lat="35.328760" lon="-111.776990">
        <ele>2421.652</ele>
        <time>2018-12-27T23:25:16Z</time>
      </trkpt>
      <trkpt lat="35.329140" lon="-111.777470">
        <ele>2419.317</ele>
        <time>2018-12-27T23:25:36Z</time>
      </trkpt>
      <trkpt lat="35.329300" lon="-111.777650">
        <ele>2418.308</ele>
        <time>2018-12-27T23:25:56Z</time>
      </trkpt>
      <trkpt lat="35.329430" lon="-111.777810">
        <ele>2418.188</ele>
        <time>2018-12-27T23:26:16Z</time>
      </trkpt>
      <trkpt lat="35.330170" lon="-111.778710">
        <ele>2418.636</ele>
        <time>2018-12-27T23:26:36Z</time>
      </trkpt>
      <trkpt lat="35.331280" lon="-111.780050">
        <ele>2419.321</ele>
        <time>2018-12-27T23:26:56Z</time>
      </trkpt>
      <trkpt lat="35.332020" lon="-111.780940">
        <ele>2417.432</ele>
        <time>2018-12-27T23:27:16Z</time>
      </trkpt>
      <trkpt lat="35.332130" lon="-111.781060">
        <ele>2417.087</ele>
        <time>2018-12-27T23:27:36Z</time>
      </trkpt>
      <trkpt lat="35.332250" lon="-111.781200">
        <ele>2416.447</ele>
        <time>2018-12-27T23:27:56Z</time>
      </trkpt>
      <trkpt lat="35.332330" lon="-111.781290">
        <ele>2416.089</ele>
        <time>2018-12-27T23:28:16Z</time>
      </trkpt>
      <trkpt lat="35.332390" lon="-111.781360">
        <ele>2415.723</ele>
        <time>2018-12-27T23:28:36Z</time>
      </trkpt>
      <trkpt lat="35.332510" lon="-111.781470">
        <ele>2415.212</ele>
        <time>2018-12-27T23:28:56Z</time>
      </trkpt>
      <trkpt lat="35.332600" lon="-111.781560">
        <ele>2415.132</ele>
        <time>2018-12-27T23:29:16Z</time>
      </trkpt>
      <trkpt lat="35.332680" lon="-111.781650">
        <ele>2415.105</ele>
        <time>2018-12-27T23:29:36Z</time>
      </trkpt>
      <trkpt lat="35.332790" lon="-111.781740">
        <ele>2415.108</ele>
        <time>2018-12-27T23:29:56Z</time>
      </trkpt>
      <trkpt lat="35.332900" lon="-111.781840">
        <ele>2415.294</ele>
        <time>2018-12-27T23:30:16Z</time>
      </trkpt>
      <trkpt lat="35.333000" lon="-111.781930">
        <ele>2415.472</ele>
        <time>2018-12-27T23:30:36Z</time>
      </trkpt>
      <trkpt lat="35.333120" lon="-111.782030">
        <ele>2415.947</ele>
        <time>2018-12-27T23:30:56Z</time>
      </trkpt>
      <trkpt lat="35.333200" lon="-111.782090">
        <ele>2416.498</ele>
        <time>2018-12-27T23:31:16Z</time>
      </trkpt>
      <trkpt lat="35.333260" lon="-111.782140">
        <ele>2416.633</ele>
        <time>2018-12-27T23:31:36Z</time>
      </trkpt>
      <trkpt lat="35.333400" lon="-111.782250">
        <ele>2417.253</ele>
        <time>2018-12-27T23:31:56Z</time>
      </trkpt>
      <trkpt lat="35.333690" lon="-111.782470">
        <ele>2418.345</ele>
        <time>2018-12-27T23:32:16Z</time>
      </trkpt>
      <trkpt lat="35.335440" lon="-111.783750">
        <ele>2421.959</ele>
        <time>2018-12-27T23:32:36Z</time>
      </trkpt>
      <trkpt lat="35.335870" lon="-111.784070">
        <ele>2425.159</ele>
        <time>2018-12-27T23:32:56Z</time>
      </trkpt>
      <trkpt lat="35.336190" lon="-111.784300">
        <ele>2427.303</ele>
        <time>2018-12-27T23:33:16Z</time>
      </trkpt>
      <trkpt lat="35.337320" lon="-111.785140">
        <ele>2426.623</ele>
        <time>2018-12-27T23:33:36Z</time>
      </trkpt>
      <trkpt lat="35.338410" lon="-111.785950">
        <ele>2428.408</ele>
        <time>2018-12-27T23:33:56Z</time>
      </trkpt>
      <trkpt lat="35.338880" lon="-111.786300">
        <ele>2427.178</ele>
        <time>2018-12-27T23:34:16Z</time>
      </trkpt>
      <trkpt lat="35.339050" lon="-111.786420">
        <ele>2425.986</ele>
        <time>2018-12-27T23:34:36Z</time>
      </trkpt>
      <trkpt lat="35.339420" lon="-111.786690">
        <ele>2423.681</ele>
        <time>2018-12-27T23:34:56Z</time>
      </trkpt>
      <trkpt lat="35.339490" lon="-111.786740">
        <ele>2423.272</ele>
        <time>2018-12-27T23:35:16Z</time>
      </trkpt>
      <trkpt lat="35.339600" lon="-111.786830">
        <ele>2422.527</ele>
        <time>2018-12-27T23:35:36Z</time>
      </trkpt>
      <trkpt lat="35.339720" lon="-111.786910">
        <ele>2422.387</ele>
        <time>2018-12-27T23:35:56Z</time>
      </trkpt>
      <trkpt lat="35.339800" lon="-111.786970">
        <ele>2422.349</ele>
        <time>2018-12-27T23:36:16Z</time>
      </trkpt>
      <trkpt lat="35.339890" lon="-111.787020">
        <ele>2422.363</ele>
        <time>2018-12-27T23:36:36Z</time>
      </trkpt>
      <trkpt lat="35.339960" lon="-111.787060">
        <ele>2422.524</ele>
        <time>2018-12-27T23:36:56Z</time>
      </trkpt>
      <trkpt lat="35.340020" lon="-111.787100">
        <ele>2422.604</ele>
        <time>2018-12-27T23:37:16Z</time>
      </trkpt>
      <trkpt lat="35.340100" lon="-111.787150">
        <ele>2422.914</ele>
        <time>2018-12-27T23:37:36Z</time>
      </trkpt>
      <trkpt lat="35.340180" lon="-111.787190">
        <ele>2423.108</ele>
        <time>2018-12-27T23:37:56Z</time>
      </trkpt>
      <trkpt lat="35.340240" lon="-111.787230">
        <ele>2423.265</ele>
        <time>2018-12-27T23:38:16Z</time>
      </trkpt>
      <trkpt lat="35.340340" lon="-111.787270">
        <ele>2423.443</ele>
        <time>2018-12-27T23:38:36Z</time>
      </trkpt>
      <trkpt lat="35.340420" lon="-111.787310">
        <ele>2423.678</ele>
        <time>2018-12-27T23:38:56Z</time>
      </trkpt>
      <trkpt lat="35.340510" lon="-111.787350">
        <ele>2423.649</ele>
        <time>2018-12-27T23:39:16Z</time>
      </trkpt>
      <trkpt lat="35.340620" lon="-111.787400">
        <ele>2423.654</ele>
        <time>2018-12-27T23:39:36Z</time>
      </trkpt>
      <trkpt lat="35.340710" lon="-111.787430">
        <ele>2423.684</ele>
        <time>2018-12-27T23:39:56Z</time>
      </trkpt>
      <trkpt lat="35.340800" lon="-111.787470">
        <ele>2423.356</ele>
        <time>2018-12-27T23:40:16Z</time>
      </trkpt>
      <trkpt lat="35.341170" lon="-111.787590">
        <ele>2422.030</ele>
        <time>2018-12-27T23:40:36Z</time>
      </trkpt>
      <trkpt lat="35.341630" lon="-111.787730">
        <ele>2420.242</ele>
        <time>2018-12-27T23:40:56Z</time>
      </trkpt>
      <trkpt lat="35.342840" lon="-111.788110">
        <ele>2422.222</ele>
        <time>2018-12-27T23:41:16Z</time>
      </trkpt>
      <trkpt lat="35.343720" lon="-111.788380">
        <ele>2424.714</ele>
        <time>2018-12-27T23:41:36Z</time>
      </trkpt>
      <trkpt lat="35.345050" lon="-111.788810">
        <ele>2428.708</ele>
        <time>2018-12-27T23:41:56Z</time>
      </trkpt>
      <trkpt lat="35.348520" lon="-111.789910">
        <ele>2433.387</ele>
        <time>2018-12-27T23:42:16Z</time>
      </trkpt>
      <trkpt lat="35.349520" lon="-111.790230">
        <ele>2434.765</ele>
        <time>2018-12-27T23:42:36Z</time>
      </trkpt>
      <trkpt lat="35.350200" lon="-111.790440">
        <ele>2435.320</ele>
        <time>2018-12-27T23:42:56Z</time>
      </trkpt>
      <trkpt lat="35.350570" lon="-111.790560">
        <ele>2435.591</ele>
        <time>2018-12-27T23:43:16Z</time>
      </trkpt>
      <trkpt lat="35.351070" lon="-111.790720">
        <ele>2436.616</ele>
        <time>2018-12-27T23:43:36Z</time>
      </trkpt>
      <trkpt lat="35.351450" lon="-111.790840">
        <ele>2437.826</ele>
        <time>2018-12-27T23:43:56Z</time>
      </trkpt>
      <trkpt lat="35.352010" lon="-111.791010">
        <ele>2439.478</ele>
        <time>2018-12-27T23:44:16Z</time>
      </trkpt>
      <trkpt lat="35.352110" lon="-111.791040">
        <ele>2439.932</ele>
        <time>2018-12-27T23:44:36Z</time>
      </trkpt>
      <trkpt lat="35.352250" lon="-111.791080">
        <ele>2441.121</ele>
        <time>2018-12-27T23:44:56Z</time>
      </trkpt>
      <trkpt lat="35.352370" lon="-111.791110">
        <ele>2441.941</ele>
        <time>2018-12-27T23:45:16Z</time>
      </trkpt>
      <trkpt lat="35.352490" lon="-111.791130">
        <ele>2442.405</ele>
        <time>2018-12-27T23:45:36Z</time>
      </trkpt>
      <trkpt lat="35.352650" lon="-111.791150">
        <ele>2443.008</ele>
        <time>2018-12-27T23:45:56Z</time>
      </trkpt>
      <trkpt lat="35.352730" lon="-111.791160">
        <ele>2443.175</ele>
        <time>2018-12-27T23:46:16Z</time>
      </trkpt>
      <trkpt lat="35.352830" lon="-111.791170">
        <ele>2443.233</ele>
        <time>2018-12-27T23:46:36Z</time>
      </trkpt>
      <trkpt lat="35.352950" lon="-111.791180">
        <ele>2443.248</ele>
        <time>2018-12-27T23:46:56Z</time>
      </trkpt>
      <trkpt lat="35.353070" lon="-111.791180">
        <ele>2443.149</ele>
        <time>2018-12-27T23:47:16Z</time>
      </trkpt>
      <trkpt lat="35.353250" lon="-111.791170">
        <ele>2442.954</ele>
        <time>2018-12-27T23:47:36Z</time>
      </trkpt>
      <trkpt lat="35.353420" lon="-111.791160">
        <ele>2442.594</ele>
        <time>2018-12-27T23:47:56Z</time>
      </trkpt>
      <trkpt lat="35.353730" lon="-111.791120">
        <ele>2441.526</ele>
        <time>2018-12-27T23:48:16Z</time>
      </trkpt>
      <trkpt lat="35.354070" lon="-111.791070">
        <ele>2439.710</ele>
        <time>2018-12-27T23:48:36Z</time>
      </trkpt>
      <trkpt lat="35.354640" lon="-111.790990">
        <ele>2437.589</ele>
        <time>2018-12-27T23:48:56Z</time>
      </trkpt>
      <trkpt lat="35.355270" lon="-111.790910">
        <ele>2435.406</ele>
        <time>2018-12-27T23:49:16Z</time>
      </trkpt>
      <trkpt lat="35.355510" lon="-111.790880">
        <ele>2434.926</ele>
        <time>2018-12-27T23:49:36Z</time>
      </trkpt>
      <trkpt lat="35.355670" lon="-111.790850">
        <ele>2434.708</ele>
        <time>2018-12-27T23:49:56Z</time>
      </trkpt>
      <trkpt lat="35.355800" lon="-111.790840">
        <ele>2434.451</ele>
        <time>2018-12-27T23:50:16Z</time>
      </trkpt>
      <trkpt lat="35.355880" lon="-111.790830">
        <ele>2434.389</ele>
        <time>2018-12-27T23:50:36Z</time>
      </trkpt>
      <trkpt lat="35.355950" lon="-111.790820">
        <ele>2434.164</ele>
        <time>2018-12-27T23:50:56Z</time>
      </trkpt>
      <trkpt lat="35.356050" lon="-111.790810">
        <ele>2433.765</ele>
        <time>2018-12-27T23:51:16Z</time>
      </trkpt>
      <trkpt lat="35.356160" lon="-111.790810">
        <ele>2433.140</ele>
        <time>2018-12-27T23:51:36Z</time>
      </trkpt>
      <trkpt lat="35.356300" lon="-111.790800">
        <ele>2432.380</ele>
        <time>2018-12-27T23:51:56Z</time>
      </trkpt>
      <trkpt lat="35.356450" lon="-111.790800">
        <ele>2431.362</ele>
        <time>2018-12-27T23:52:16Z</time>
      </trkpt>
      <trkpt lat="35.356620" lon="-111.790800">
        <ele>2430.276</ele>
        <time>2018-12-27T23:52:36Z</time>
      </trkpt>
      <trkpt lat="35.356740" lon="-111.790810">
        <ele>2429.536</ele>
        <time>2018-12-27T23:52:56Z</time>
      </trkpt>
      <trkpt lat="35.356920" lon="-111.790810">
        <ele>2428.717</ele>
        <time>2018-12-27T23:53:16Z</time>
      </trkpt>
      <trkpt lat="35.357270" lon="-111.790840">
        <ele>2427.818</ele>
        <time>2018-12-27T23:53:36Z</time>
      </trkpt>
      <trkpt lat="35.357690" lon="-111.790870">
        <ele>2427.808</ele>
        <time>2018-12-27T23:53:56Z</time>
      </trkpt>
      <trkpt lat="35.358540" lon="-111.790940">
        <ele>2429.516</ele>
        <time>2018-12-27T23:54:16Z</time>
      </trkpt>
      <trkpt lat="35.362270" lon="-111.791270">
        <ele>2437.654</ele>
        <time>2018-12-27T23:54:36Z</time>
      </trkpt>
      <trkpt lat="35.363320" lon="-111.791370">
        <ele>2440.299</ele>
        <time>2018-12-27T23:54:56Z</time>
      </trkpt>
      <trkpt lat="35.363420" lon="-111.791370">
        <ele>2440.560</ele>
        <time>2018-12-27T23:55:16Z</time>
      </trkpt>
      <trkpt lat="35.363520" lon="-111.791380">
        <ele>2440.775</ele>
        <time>2018-12-27T23:55:36Z</time>
      </trkpt>
      <trkpt lat="35.363650" lon="-111.791380">
        <ele>2441.035</ele>
        <time>2018-12-27T23:55:56Z</time>
      </trkpt>
      <trkpt lat="35.363800" lon="-111.791390">
        <ele>2441.397</ele>
        <time>2018-12-27T23:56:16Z</time>
      </trkpt>
      <trkpt lat="35.363960" lon="-111.791390">
        <ele>2441.621</ele>
        <time>2018-12-27T23:56:36Z</time>
      </trkpt>
      <trkpt lat="35.364100" lon="-111.791390">
        <ele>2441.837</ele>
        <time>2018-12-27T23:56:56Z</time>
      </trkpt>
      <trkpt lat="35.364200" lon="-111.791380">
        <ele>2441.949</ele>
        <time>2018-12-27T23:57:16Z</time>
      </trkpt>
      <trkpt lat="35.364380" lon="-111.791370">
        <ele>2442.113</ele>
        <time>2018-12-27T23:57:36Z</time>
      </trkpt>
      <trkpt lat="35.364520" lon="-111.791360">
        <ele>2442.208</ele>
        <time>2018-12-27T23:57:56Z</time>
      </trkpt>
      <trkpt lat="35.364630" lon="-111.791350">
        <ele>2442.356</ele>
        <time>2018-12-27T23:58:16Z</time>
      </trkpt>
      <trkpt lat="35.364760" lon="-111.791330">
        <ele>2442.444</ele>
        <time>2018-12-27T23:58:36Z</time>
      </trkpt>
      <trkpt lat="35.364920" lon="-111.791310">
        <ele>2442.569</ele>
        <time>2018-12-27T23:58:56Z</time>
      </trkpt>
      <trkpt lat="35.365110" lon="-111.791280">
        <ele>2442.640</ele>
        <time>2018-12-27T23:59:16Z</time>
      </trkpt>
      <trkpt lat="35.366830" lon="-111.791040">
        <ele>2442.825</ele>
        <time>2018-12-27T23:59:36Z</time>
      </trkpt>
      <trkpt lat="35.369440" lon="-111.790670">
        <ele>2441.225</ele>
        <time>2018-12-27T23:59:56Z</time>
      </trkpt>
      <trkpt lat="35.370120" lon="-111.790570">
        <ele>2440.767</ele>
        <time>2018-12-28T00:00:16Z</time>
      </trkpt>
      <trkpt lat="35.370880" lon="-111.790460">
        <ele>2440.271</ele>
        <time>2018-12-28T00:00:36Z</time>
      </trkpt>
      <trkpt lat="35.372710" lon="-111.790200">
        <ele>2441.311</ele>
        <time>2018-12-28T00:00:56Z</time>
      </trkpt>
      <trkpt lat="35.374570" lon="-111.789940">
        <ele>2441.721</ele>
        <time>2018-12-28T00:01:16Z</time>
      </trkpt>
      <trkpt lat="35.375020" lon="-111.789870">
        <ele>2441.203</ele>
        <time>2018-12-28T00:01:36Z</time>
      </trkpt>
      <trkpt lat="35.375270" lon="-111.789830">
        <ele>2440.908</ele>
        <time>2018-12-28T00:01:56Z</time>
      </trkpt>
      <trkpt lat="35.375610" lon="-111.789780">
        <ele>2440.334</ele>
        <time>2018-12-28T00:02:16Z</time>
      </trkpt>
      <trkpt lat="35.375770" lon="-111.789750">
        <ele>2439.952</ele>
        <time>2018-12-28T00:02:36Z</time>
      </trkpt>
      <trkpt lat="35.375980" lon="-111.789710">
        <ele>2439.467</ele>
        <time>2018-12-28T00:02:56Z</time>
      </trkpt>
      <trkpt lat="35.376130" lon="-111.789680">
        <ele>2439.288</ele>
        <time>2018-12-28T00:03:16Z</time>
      </trkpt>
      <trkpt lat="35.376240" lon="-111.789640">
        <ele>2439.143</ele>
        <time>2018-12-28T00:03:36Z</time>
      </trkpt>
      <trkpt lat="35.376350" lon="-111.789610">
        <ele>2439.083</ele>
        <time>2018-12-28T00:03:56Z</time>
      </trkpt>
      <trkpt lat="35.376470" lon="-111.789570">
        <ele>2438.975</ele>
        <time>2018-12-28T00:04:16Z</time>
      </trkpt>
      <trkpt lat="35.376550" lon="-111.789530">
        <ele>2439.079</ele>
        <time>2018-12-28T00:04:36Z</time>
      </trkpt>
      <trkpt lat="35.376650" lon="-111.789490">
        <ele>2439.056</ele>
        <time>2018-12-28T00:04:56Z</time>
      </trkpt>
      <trkpt lat="35.376780" lon="-111.789430">
        <ele>2439.059</ele>
        <time>2018-12-28T00:05:16Z</time>
      </trkpt>
      <trkpt lat="35.376860" lon="-111.789390">
        <ele>2438.914</ele>
        <time>2018-12-28T00:05:36Z</time>
      </trkpt>
      <trkpt lat="35.376940" lon="-111.789350">
        <ele>2438.908</ele>
        <time>2018-12-28T00:05:56Z</time>
      </trkpt>
      <trkpt lat="35.377180" lon="-111.789220">
        <ele>2438.728</ele>
        <time>2018-12-28T00:06:16Z</time>
      </trkpt>
      <trkpt lat="35.377470" lon="-111.789040">
        <ele>2438.376</ele>
        <time>2018-12-28T00:06:36Z</time>
      </trkpt>
      <trkpt lat="35.377720" lon="-111.788860">
        <ele>2437.851</ele>
        <time>2018-12-28T00:06:56Z</time>
      </trkpt>
      <trkpt lat="35.377840" lon="-111.788760">
        <ele>2437.682</ele>
        <time>2018-12-28T00:07:16Z</time>
      </trkpt>
      <trkpt lat="35.377980" lon="-111.788650">
        <ele>2437.467</ele>
        <time>2018-12-28T00:07:36Z</time>
      </trkpt>
      <trkpt lat="35.378080" lon="-111.788560">
        <ele>2437.487</ele>
        <time>2018-12-28T00:07:56Z</time>
      </trkpt>
      <trkpt lat="35.378170" lon="-111.788480">
        <ele>2437.269</ele>
        <time>2018-12-28T00:08:16Z</time>
      </trkpt>
      <trkpt lat="35.378330" lon="-111.788320">
        <ele>2437.293</ele>
        <time>2018-12-28T00:08:36Z</time>
      </trkpt>
      <trkpt lat="35.378490" lon="-111.788150">
        <ele>2437.265</ele>
        <time>2018-12-28T00:08:56Z</time>
      </trkpt>
      <trkpt lat="35.378640" lon="-111.787970">
        <ele>2437.468</ele>
        <time>2018-12-28T00:09:16Z</time>
      </trkpt>
      <trkpt lat="35.378830" lon="-111.787720">
        <ele>2437.714</ele>
        <time>2018-12-28T00:09:36Z</time>
      </trkpt>
      <trkpt lat="35.378940" lon="-111.787580">
        <ele>2437.808</ele>
        <time>2018-12-28T00:09:56Z</time>
      </trkpt>
      <trkpt lat="35.379030" lon="-111.787440">
        <ele>2437.969</ele>
        <time>2018-12-28T00:10:16Z</time>
      </trkpt>
      <trkpt lat="35.379100" lon="-111.787330">
        <ele>2438.017</ele>
        <time>2018-12-28T00:10:36Z</time>
      </trkpt>
      <trkpt lat="35.379180" lon="-111.787190">
        <ele>2438.242</ele>
        <time>2018-12-28T00:10:56Z</time>
      </trkpt>
      <trkpt lat="35.379240" lon="-111.787100">
        <ele>2438.343</ele>
        <time>2018-12-28T00:11:16Z</time>
      </trkpt>
      <trkpt lat="35.379330" lon="-111.786930">
        <ele>2438.758</ele>
        <time>2018-12-28T00:11:36Z</time>
      </trkpt>
      <trkpt lat="35.379470" lon="-111.786660">
        <ele>2439.298</ele>
        <time>2018-12-28T00:11:56Z</time>
      </trkpt>
      <trkpt lat="35.379760" lon="-111.786120">
        <ele>2440.750</ele>
        <time>2018-12-28T00:12:16Z</time>
      </trkpt>
      <trkpt lat="35.380090" lon="-111.785510">
        <ele>2442.664</ele>
        <time>2018-12-28T00:12:36Z</time>
      </trkpt>
      <trkpt lat="35.380250" lon="-111.785200">
        <ele>2443.734</ele>
        <time>2018-12-28T00:12:56Z</time>
      </trkpt>
      <trkpt lat="35.380750" lon="-111.784250">
        <ele>2446.955</ele>
        <time>2018-12-28T00:13:16Z</time>
      </trkpt>
      <trkpt lat="35.381240" lon="-111.783330">
        <ele>2449.710</ele>
        <time>2018-12-28T00:13:36Z</time>
      </trkpt>
      <trkpt lat="35.381490" lon="-111.782840">
        <ele>2450.708</ele>
        <time>2018-12-28T00:13:56Z</time>
      </trkpt>
      <trkpt lat="35.381760" lon="-111.782340">
        <ele>2451.816</ele>
        <time>2018-12-28T00:14:16Z</time>
      </trkpt>
      <trkpt lat="35.381850" lon="-111.782170">
        <ele>2452.164</ele>
        <time>2018-12-28T00:14:36Z</time>
      </trkpt>
      <trkpt lat="35.381960" lon="-111.781980">
        <ele>2452.289</ele>
        <time>2018-12-28T00:14:56Z</time>
      </trkpt>
      <trkpt lat="35.382120" lon="-111.781720">
        <ele>2452.610</ele>
        <time>2018-12-28T00:15:16Z</time>
      </trkpt>
      <trkpt lat="35.382250" lon="-111.781510">
        <ele>2453.445</ele>
        <time>2018-12-28T00:15:36Z</time>
      </trkpt>
      <trkpt lat="35.382430" lon="-111.781240">
        <ele>2454.355</ele>
        <time>2018-12-28T00:15:56Z</time>
      </trkpt>
      <trkpt lat="35.382510" lon="-111.781130">
        <ele>2454.587</ele>
        <time>2018-12-28T00:16:16Z</time>
      </trkpt>
      <trkpt lat="35.382620" lon="-111.780980">
        <ele>2454.541</ele>
        <time>2018-12-28T00:16:36Z</time>
      </trkpt>
      <trkpt lat="35.382690" lon="-111.780880">
        <ele>2454.555</ele>
        <time>2018-12-28T00:16:56Z</time>
      </trkpt>
      <trkpt lat="35.382750" lon="-111.780820">
        <ele>2454.407</ele>
        <time>2018-12-28T00:17:16Z</time>
      </trkpt>
      <trkpt lat="35.382800" lon="-111.780750">
        <ele>2454.317</ele>
        <time>2018-12-28T00:17:36Z</time>
      </trkpt>
      <trkpt lat="35.382880" lon="-111.780660">
        <ele>2454.208</ele>
        <time>2018-12-28T00:17:56Z</time>
      </trkpt>
      <trkpt lat="35.382980" lon="-111.780540">
        <ele>2454.298</ele>
        <time>2018-12-28T00:18:16Z</time>
      </trkpt>
      <trkpt lat="35.383090" lon="-111.780410">
        <ele>2454.326</ele>
        <time>2018-12-28T00:18:36Z</time>
      </trkpt>
      <trkpt lat="35.383220" lon="-111.780280">
        <ele>2454.341</ele>
        <time>2018-12-28T00:18:56Z</time>
      </trkpt>
      <trkpt lat="35.383300" lon="-111.780190">
        <ele>2454.272</ele>
        <time>2018-12-28T00:19:16Z</time>
      </trkpt>
      <trkpt lat="35.383360" lon="-111.780120">
        <ele>2454.237</ele>
        <time>2018-12-28T00:19:36Z</time>
      </trkpt>
      <trkpt lat="35.383490" lon="-111.780000">
        <ele>2453.967</ele>
        <time>2018-12-28T00:19:56Z</time>
      </trkpt>
      <trkpt lat="35.384100" lon="-111.779430">
        <ele>2452.899</ele>
        <time>2018-12-28T00:20:16Z</time>
      </trkpt>
      <trkpt lat="35.385750" lon="-111.777930">
        <ele>2451.113</ele>
        <time>2018-12-28T00:20:36Z</time>
      </trkpt>
      <trkpt lat="35.386920" lon="-111.776840">
        <ele>2448.683</ele>
        <time>2018-12-28T00:20:56Z</time>
      </trkpt>
      <trkpt lat="35.387430" lon="-111.776370">
        <ele>2446.125</ele>
        <time>2018-12-28T00:21:16Z</time>
      </trkpt>
      <trkpt lat="35.387590" lon="-111.776230">
        <ele>2445.617</ele>
        <time>2018-12-28T00:21:36Z</time>
      </trkpt>
      <trkpt lat="35.388390" lon="-111.775500">
        <ele>2444.008</ele>
        <time>2018-12-28T00:21:56Z</time>
      </trkpt>
      <trkpt lat="35.389520" lon="-111.774440">
        <ele>2442.751</ele>
        <time>2018-12-28T00:22:16Z</time>
      </trkpt>
      <trkpt lat="35.390000" lon="-111.774010">
        <ele>2441.029</ele>
        <time>2018-12-28T00:22:36Z</time>
      </trkpt>
      <trkpt lat="35.390470" lon="-111.773570">
        <ele>2439.514</ele>
        <time>2018-12-28T00:22:56Z</time>
      </trkpt>
      <trkpt lat="35.391340" lon="-111.772780">
        <ele>2436.115</ele>
        <time>2018-12-28T00:23:16Z</time>
      </trkpt>
      <trkpt lat="35.391800" lon="-111.772350">
        <ele>2434.140</ele>
        <time>2018-12-28T00:23:36Z</time>
      </trkpt>
      <trkpt lat="35.392960" lon="-111.771300">
        <ele>2432.410</ele>
        <time>2018-12-28T00:23:56Z</time>
      </trkpt>
      <trkpt lat="35.393350" lon="-111.770930">
        <ele>2432.092</ele>
        <time>2018-12-28T00:24:16Z</time>
      </trkpt>
      <trkpt lat="35.393670" lon="-111.770630">
        <ele>2431.426</ele>
        <time>2018-12-28T00:24:36Z</time>
      </trkpt>
      <trkpt lat="35.393820" lon="-111.770470">
        <ele>2430.671</ele>
        <time>2018-12-28T00:24:56Z</time>
      </trkpt>
      <trkpt lat="35.393950" lon="-111.770340">
        <ele>2429.841</ele>
        <time>2018-12-28T00:25:16Z</time>
      </trkpt>
      <trkpt lat="35.394170" lon="-111.770100">
        <ele>2428.615</ele>
        <time>2018-12-28T00:25:36Z</time>
      </trkpt>
      <trkpt lat="35.394510" lon="-111.769670">
        <ele>2427.408</ele>
        <time>2018-12-28T00:25:56Z</time>
      </trkpt>
      <trkpt lat="35.394620" lon="-111.769530">
        <ele>2427.350</ele>
        <time>2018-12-28T00:26:16Z</time>
      </trkpt>
      <trkpt lat="35.394720" lon="-111.769380">
        <ele>2427.348</ele>
        <time>2018-12-28T00:26:36Z</time>
      </trkpt>
      <trkpt lat="35.394850" lon="-111.769190">
        <ele>2427.383</ele>
        <time>2018-12-28T00:26:56Z</time>
      </trkpt>
      <trkpt lat="35.394930" lon="-111.769080">
        <ele>2427.314</ele>
        <time>2018-12-28T00:27:16Z</time>
      </trkpt>
      <trkpt lat="35.395030" lon="-111.768910">
        <ele>2427.299</ele>
        <time>2018-12-28T00:27:36Z</time>
      </trkpt>
      <trkpt lat="35.395130" lon="-111.768750">
        <ele>2427.319</ele>
        <time>2018-12-28T00:27:56Z</time>
      </trkpt>
      <trkpt lat="35.395260" lon="-111.768520">
        <ele>2427.391</ele>
        <time>2018-12-28T00:28:16Z</time>
      </trkpt>
      <trkpt lat="35.395330" lon="-111.768380">
        <ele>2427.165</ele>
        <time>2018-12-28T00:28:36Z</time>
      </trkpt>
      <trkpt lat="35.395410" lon="-111.768240">
        <ele>2427.051</ele>
        <time>2018-12-28T00:28:56Z</time>
      </trkpt>
      <trkpt lat="35.395510" lon="-111.768040">
        <ele>2426.601</ele>
        <time>2018-12-28T00:29:16Z</time>
      </trkpt>
      <trkpt lat="35.395620" lon="-111.767800">
        <ele>2426.211</ele>
        <time>2018-12-28T00:29:36Z</time>
      </trkpt>
      <trkpt lat="35.395720" lon="-111.767580">
        <ele>2425.908</ele>
        <time>2018-12-28T00:29:56Z</time>
      </trkpt>
      <trkpt lat="35.395850" lon="-111.767250">
        <ele>2425.618</ele>
        <time>2018-12-28T00:30:16Z</time>
      </trkpt>
      <trkpt lat="35.395930" lon="-111.767030">
        <ele>2425.516</ele>
        <time>2018-12-28T00:30:36Z</time>
      </trkpt>
      <trkpt lat="35.396010" lon="-111.766820">
        <ele>2425.221</ele>
        <time>2018-12-28T00:30:56Z</time>
      </trkpt>
      <trkpt lat="35.396070" lon="-111.766640">
        <ele>2425.012</ele>
        <time>2018-12-28T00:31:16Z</time>
      </trkpt>
      <trkpt lat="35.396110" lon="-111.766510">
        <ele>2424.997</ele>
        <time>2018-12-28T00:31:36Z</time>
      </trkpt>
      <trkpt lat="35.396150" lon="-111.766370">
        <ele>2424.737</ele>
        <time>2018-12-28T00:31:56Z</time>
      </trkpt>
      <trkpt lat="35.396180" lon="-111.766280">
        <ele>2424.689</ele>
        <time>2018-12-28T00:32:16Z</time>
      </trkpt>
      <trkpt lat="35.396210" lon="-111.766150">
        <ele>2424.453</ele>
        <time>2018-12-28T00:32:36Z</time>
      </trkpt>
      <trkpt lat="35.396240" lon="-111.766040">
        <ele>2424.241</ele>
        <time>2018-12-28T00:32:56Z</time>
      </trkpt>
      <trkpt lat="35.396270" lon="-111.765920">
        <ele>2424.181</ele>
        <time>2018-12-28T00:33:16Z</time>
      </trkpt>
      <trkpt lat="35.396330" lon="-111.765660">
        <ele>2423.609</ele>
        <time>2018-12-28T00:33:36Z</time>
      </trkpt>
      <trkpt lat="35.396480" lon="-111.764960">
        <ele>2422.408</ele>
        <time>2018-12-28T00:33:56Z</time>
      </trkpt>
      <trkpt lat="35.396660" lon="-111.764050">
        <ele>2421.817</ele>
        <time>2018-12-28T00:34:16Z</time>
      </trkpt>
      <trkpt lat="35.396820" lon="-111.763260">
        <ele>2421.755</ele>
        <time>2018-12-28T00:34:36Z</time>
      </trkpt>
      <trkpt lat="35.397080" lon="-111.761970">
        <ele>2421.630</ele>
        <time>2018-12-28T00:34:56Z</time>
      </trkpt>
      <trkpt lat="35.397310" lon="-111.760900">
        <ele>2421.751</ele>
        <time>2018-12-28T00:35:16Z</time>
      </trkpt>
      <trkpt lat="35.397430" lon="-111.760260">
        <ele>2421.046</ele>
        <time>2018-12-28T00:35:36Z</time>
      </trkpt>
      <trkpt lat="35.397600" lon="-111.759450">
        <ele>2418.466</ele>
        <time>2018-12-28T00:35:56Z</time>
      </trkpt>
      <trkpt lat="35.397770" lon="-111.758620">
        <ele>2415.118</ele>
        <time>2018-12-28T00:36:16Z</time>
      </trkpt>
      <trkpt lat="35.397880" lon="-111.758060">
        <ele>2414.592</ele>
        <time>2018-12-28T00:36:36Z</time>
      </trkpt>
      <trkpt lat="35.397910" lon="-111.757900">
        <ele>2414.029</ele>
        <time>2018-12-28T00:36:56Z</time>
      </trkpt>
      <trkpt lat="35.397940" lon="-111.757790">
        <ele>2413.500</ele>
        <time>2018-12-28T00:37:16Z</time>
      </trkpt>
      <trkpt lat="35.397960" lon="-111.757700">
        <ele>2413.020</ele>
        <time>2018-12-28T00:37:36Z</time>
      </trkpt>
      <trkpt lat="35.397990" lon="-111.757590">
        <ele>2412.608</ele>
        <time>2018-12-28T00:37:56Z</time>
      </trkpt>
      <trkpt lat="35.398010" lon="-111.757510">
        <ele>2412.375</ele>
        <time>2018-12-28T00:38:16Z</time>
      </trkpt>
      <trkpt lat="35.398050" lon="-111.757390">
        <ele>2411.823</ele>
        <time>2018-12-28T00:38:36Z</time>
      </trkpt>
      <trkpt lat="35.398080" lon="-111.757330">
        <ele>2411.648</ele>
        <time>2018-12-28T00:38:56Z</time>
      </trkpt>
      <trkpt lat="35.398130" lon="-111.757190">
        <ele>2411.129</ele>
        <time>2018-12-28T00:39:16Z</time>
      </trkpt>
      <trkpt lat="35.398190" lon="-111.757050">
        <ele>2410.794</ele>
        <time>2018-12-28T00:39:36Z</time>
      </trkpt>
      <trkpt lat="35.398290" lon="-111.756850">
        <ele>2410.154</ele>
        <time>2018-12-28T00:39:56Z</time>
      </trkpt>
      <trkpt lat="35.398380" lon="-111.756710">
        <ele>2409.746</ele>
        <time>2018-12-28T00:40:16Z</time>
      </trkpt>
      <trkpt lat="35.398460" lon="-111.756600">
        <ele>2409.590</ele>
        <time>2018-12-28T00:40:36Z</time>
      </trkpt>
      <trkpt lat="35.398520" lon="-111.756510">
        <ele>2409.399</ele>
        <time>2018-12-28T00:40:56Z</time>
      </trkpt>
      <trkpt lat="35.398610" lon="-111.756400">
        <ele>2408.907</ele>
        <time>2018-12-28T00:41:16Z</time>
      </trkpt>
      <trkpt lat="35.398720" lon="-111.756280">
        <ele>2408.627</ele>
        <time>2018-12-28T00:41:36Z</time>
      </trkpt>
      <trkpt lat="35.398830" lon="-111.756160">
        <ele>2408.508</ele>
        <time>2018-12-28T00:41:56Z</time>
      </trkpt>
      <trkpt lat="35.398940" lon="-111.756070">
        <ele>2408.432</ele>
        <time>2018-12-28T00:42:16Z</time>
      </trkpt>
      <trkpt lat="35.399060" lon="-111.755970">
        <ele>2408.220</ele>
        <time>2018-12-28T00:42:36Z</time>
      </trkpt>
      <trkpt lat="35.399130" lon="-111.755920">
        <ele>2408.115</ele>
        <time>2018-12-28T00:42:56Z</time>
      </trkpt>
      <trkpt lat="35.399190" lon="-111.755880">
        <ele>2408.096</ele>
        <time>2018-12-28T00:43:16Z</time>
      </trkpt>
      <trkpt lat="35.399280" lon="-111.755820">
        <ele>2407.831</ele>
        <time>2018-12-28T00:43:36Z</time>
      </trkpt>
      <trkpt lat="35.399380" lon="-111.755760">
        <ele>2407.711</ele>
        <time>2018-12-28T00:43:56Z</time>
      </trkpt>
      <trkpt lat="35.399470" lon="-111.755710">
        <ele>2407.653</ele>
        <time>2018-12-28T00:44:16Z</time>
      </trkpt>
      <trkpt lat="35.399580" lon="-111.755660">
        <ele>2407.557</ele>
        <time>2018-12-28T00:44:36Z</time>
      </trkpt>
      <trkpt lat="35.399720" lon="-111.755610">
        <ele>2407.486</ele>
        <time>2018-12-28T00:44:56Z</time>
      </trkpt>
      <trkpt lat="35.399820" lon="-111.755570">
        <ele>2407.460</ele>
        <time>2018-12-28T00:45:16Z</time>
      </trkpt>
      <trkpt lat="35.399920" lon="-111.755550">
        <ele>2407.326</ele>
        <time>2018-12-28T00:45:36Z</time>
      </trkpt>
      <trkpt lat="35.400040" lon="-111.755520">
        <ele>2407.208</ele>
        <time>2018-12-28T00:45:56Z</time>
      </trkpt>
      <trkpt lat="35.400150" lon="-111.755500">
        <ele>2407.241</ele>
        <time>2018-12-28T00:46:16Z</time>
      </trkpt>
      <trkpt lat="35.400230" lon="-111.755490">
        <ele>2407.269</ele>
        <time>2018-12-28T00:46:36Z</time>
      </trkpt>
      <trkpt lat="35.400290" lon="-111.755480">
        <ele>2407.144</ele>
        <time>2018-12-28T00:46:56Z</time>
      </trkpt>
      <trkpt lat="35.400390" lon="-111.755480">
        <ele>2407.175</ele>
        <time>2018-12-28T00:47:16Z</time>
      </trkpt>
      <trkpt lat="35.400460" lon="-111.755450">
        <ele>2407.050</ele>
        <time>2018-12-28T00:47:36Z</time>
      </trkpt>
      <trkpt lat="35.400520" lon="-111.755450">
        <ele>2407.040</ele>
        <time>2018-12-28T00:47:56Z</time>
      </trkpt>
      <trkpt lat="35.400780" lon="-111.755450">
        <ele>2406.872</ele>
        <time>2018-12-28T00:48:16Z</time>
      </trkpt>
      <trkpt lat="35.400940" lon="-111.755450">
        <ele>2406.846</ele>
        <time>2018-12-28T00:48:36Z</time>
      </trkpt>
      <trkpt lat="35.401160" lon="-111.755450">
        <ele>2406.717</ele>
        <time>2018-12-28T00:48:56Z</time>
      </trkpt>
      <trkpt lat="35.401210" lon="-111.755450">
        <ele>2406.787</ele>
        <time>2018-12-28T00:49:16Z</time>
      </trkpt>
      <trkpt lat="35.401670" lon="-111.755460">
        <ele>2406.615</ele>
        <time>2018-12-28T00:49:36Z</time>
      </trkpt>
      <trkpt lat="35.402040" lon="-111.755450">
        <ele>2405.508</ele>
        <time>2018-12-28T00:49:56Z</time>
      </trkpt>
      <trkpt lat="35.402870" lon="-111.755480">
        <ele>2405.074</ele>
        <time>2018-12-28T00:50:16Z</time>
      </trkpt>
      <trkpt lat="35.403360" lon="-111.755490">
        <ele>2405.332</ele>
        <time>2018-12-28T00:50:36Z</time>
      </trkpt>
      <trkpt lat="35.403450" lon="-111.755510">
        <ele>2405.417</ele>
        <time>2018-12-28T00:50:56Z</time>
      </trkpt>
      <trkpt lat="35.404190" lon="-111.755530">
        <ele>2406.428</ele>
        <time>2018-12-28T00:51:16Z</time>
      </trkpt>
      <trkpt lat="35.406430" lon="-111.755550">
        <ele>2405.423</ele>
        <time>2018-12-28T00:51:36Z</time>
      </trkpt>
      <trkpt lat="35.407700" lon="-111.755590">
        <ele>2404.883</ele>
        <time>2018-12-28T00:51:56Z</time>
      </trkpt>
      <trkpt lat="35.413240" lon="-111.755650">
        <ele>2402.855</ele>
        <time>2018-12-28T00:52:16Z</time>
      </trkpt>
      <trkpt lat="35.413320" lon="-111.755650">
        <ele>2402.899</ele>
        <time>2018-12-28T00:52:36Z</time>
      </trkpt>
      <trkpt lat="35.418240" lon="-111.755690">
        <ele>2398.568</ele>
        <time>2018-12-28T00:52:56Z</time>
      </trkpt>
      <trkpt lat="35.419640" lon="-111.755710">
        <ele>2398.742</ele>
        <time>2018-12-28T00:53:16Z</time>
      </trkpt>
      <trkpt lat="35.421710" lon="-111.755720">
        <ele>2398.326</ele>
        <time>2018-12-28T00:53:36Z</time>
      </trkpt>
      <trkpt lat="35.422390" lon="-111.755740">
        <ele>2400.808</ele>
        <time>2018-12-28T00:53:56Z</time>
      </trkpt>
      <trkpt lat="35.422690" lon="-111.755750">
        <ele>2401.889</ele>
        <time>2018-12-28T00:54:16Z</time>
      </trkpt>
      <trkpt lat="35.422840" lon="-111.755770">
        <ele>2402.287</ele>
        <time>2018-12-28T00:54:36Z</time>
      </trkpt>
      <trkpt lat="35.423020" lon="-111.755800">
        <ele>2402.872</ele>
        <time>2018-12-28T00:54:56Z</time>
      </trkpt>
      <trkpt lat="35.423200" lon="-111.755830">
        <ele>2403.543</ele>
        <time>2018-12-28T00:55:16Z</time>
      </trkpt>
      <trkpt lat="35.423310" lon="-111.755870">
        <ele>2404.348</ele>
        <time>2018-12-28T00:55:36Z</time>
      </trkpt>
      <trkpt lat="35.423460" lon="-111.755920">
        <ele>2405.178</ele>
        <time>2018-12-28T00:55:56Z</time>
      </trkpt>
      <trkpt lat="35.423600" lon="-111.755970">
        <ele>2405.990</ele>
        <time>2018-12-28T00:56:16Z</time>
      </trkpt>
      <trkpt lat="35.423730" lon="-111.756020">
        <ele>2406.824</ele>
        <time>2018-12-28T00:56:36Z</time>
      </trkpt>
      <trkpt lat="35.423860" lon="-111.756090">
        <ele>2407.318</ele>
        <time>2018-12-28T00:56:56Z</time>
      </trkpt>
      <trkpt lat="35.423960" lon="-111.756140">
        <ele>2407.898</ele>
        <time>2018-12-28T00:57:16Z</time>
      </trkpt>
      <trkpt lat="35.424070" lon="-111.756210">
        <ele>2408.217</ele>
        <time>2018-12-28T00:57:36Z</time>
      </trkpt>
      <trkpt lat="35.424190" lon="-111.756280">
        <ele>2408.508</ele>
        <time>2018-12-28T00:57:56Z</time>
      </trkpt>
      <trkpt lat="35.424320" lon="-111.756360">
        <ele>2408.914</ele>
        <time>2018-12-28T00:58:16Z</time>
      </trkpt>
      <trkpt lat="35.424520" lon="-111.756520">
        <ele>2409.562</ele>
        <time>2018-12-28T00:58:36Z</time>
      </trkpt>
      <trkpt lat="35.424610" lon="-111.756590">
        <ele>2409.857</ele>
        <time>2018-12-28T00:58:56Z</time>
      </trkpt>
      <trkpt lat="35.424750" lon="-111.756720">
        <ele>2410.328</ele>
        <time>2018-12-28T00:59:16Z</time>
      </trkpt>
      <trkpt lat="35.424930" lon="-111.756890">
        <ele>2411.083</ele>
        <time>2018-12-28T00:59:36Z</time>
      </trkpt>
      <trkpt lat="35.425040" lon="-111.757000">
        <ele>2411.323</ele>
        <time>2018-12-28T00:59:56Z</time>
      </trkpt>
      <trkpt lat="35.425200" lon="-111.757170">
        <ele>2411.835</ele>
        <time>2018-12-28T01:00:16Z</time>
      </trkpt>
      <trkpt lat="35.425270" lon="-111.757240">
        <ele>2412.199</ele>
        <time>2018-12-28T01:00:36Z</time>
      </trkpt>
      <trkpt lat="35.425690" lon="-111.757690">
        <ele>2414.349</ele>
        <time>2018-12-28T01:00:56Z</time>
      </trkpt>
      <trkpt lat="35.426300" lon="-111.758350">
        <ele>2413.002</ele>
        <time>2018-12-28T01:01:16Z</time>
      </trkpt>
      <trkpt lat="35.426820" lon="-111.758890">
        <ele>2412.522</ele>
        <time>2018-12-28T01:01:36Z</time>
      </trkpt>
      <trkpt lat="35.427650" lon="-111.759760">
        <ele>2408.808</ele>
        <time>2018-12-28T01:01:56Z</time>
      </trkpt>
      <trkpt lat="35.427910" lon="-111.760030">
        <ele>2406.787</ele>
        <time>2018-12-28T01:02:16Z</time>
      </trkpt>
      <trkpt lat="35.428110" lon="-111.760240">
        <ele>2405.095</ele>
        <time>2018-12-28T01:02:36Z</time>
      </trkpt>
      <trkpt lat="35.428200" lon="-111.760330">
        <ele>2404.280</ele>
        <time>2018-12-28T01:02:56Z</time>
      </trkpt>
      <trkpt lat="35.428290" lon="-111.760410">
        <ele>2403.391</ele>
        <time>2018-12-28T01:03:16Z</time>
      </trkpt>
      <trkpt lat="35.428380" lon="-111.760490">
        <ele>2402.556</ele>
        <time>2018-12-28T01:03:36Z</time>
      </trkpt>
      <trkpt lat="35.428470" lon="-111.760550">
        <ele>2401.526</ele>
        <time>2018-12-28T01:03:56Z</time>
      </trkpt>
      <trkpt lat="35.428560" lon="-111.760620">
        <ele>2400.438</ele>
        <time>2018-12-28T01:04:16Z</time>
      </trkpt>
      <trkpt lat="35.428630" lon="-111.760670">
        <ele>2399.572</ele>
        <time>2018-12-28T01:04:36Z</time>
      </trkpt>
      <trkpt lat="35.428800" lon="-111.760760">
        <ele>2397.093</ele>
        <time>2018-12-28T01:04:56Z</time>
      </trkpt>
      <trkpt lat="35.428890" lon="-111.760810">
        <ele>2395.665</ele>
        <time>2018-12-28T01:05:16Z</time>
      </trkpt>
      <trkpt lat="35.428990" lon="-111.760850">
        <ele>2394.321</ele>
        <time>2018-12-28T01:05:36Z</time>
      </trkpt>
      <trkpt lat="35.429120" lon="-111.760900">
        <ele>2393.208</ele>
        <time>2018-12-28T01:05:56Z</time>
      </trkpt>
      <trkpt lat="35.429220" lon="-111.760930">
        <ele>2392.792</ele>
        <time>2018-12-28T01:06:16Z</time>
      </trkpt>
      <trkpt lat="35.429480" lon="-111.761000">
        <ele>2389.620</ele>
        <time>2018-12-28T01:06:36Z</time>
      </trkpt>
      <trkpt lat="35.429650" lon="-111.761040">
        <ele>2388.095</ele>
        <time>2018-12-28T01:06:56Z</time>
      </trkpt>
      <trkpt lat="35.429760" lon="-111.761080">
        <ele>2387.436</ele>
        <time>2018-12-28T01:07:16Z</time>
      </trkpt>
      <trkpt lat="35.429870" lon="-111.761120">
        <ele>2386.891</ele>
        <time>2018-12-28T01:07:36Z</time>
      </trkpt>
      <trkpt lat="35.429990" lon="-111.761170">
        <ele>2385.851</ele>
        <time>2018-12-28T01:07:56Z</time>
      </trkpt>
      <trkpt lat="35.430120" lon="-111.761240">
        <ele>2384.543</ele>
        <time>2018-12-28T01:08:16Z</time>
      </trkpt>
      <trkpt lat="35.430260" lon="-111.761330">
        <ele>2382.327</ele>
        <time>2018-12-28T01:08:36Z</time>
      </trkpt>
      <trkpt lat="35.430350" lon="-111.761390">
        <ele>2381.379</ele>
        <time>2018-12-28T01:08:56Z</time>
      </trkpt>
      <trkpt lat="35.430440" lon="-111.761460">
        <ele>2380.505</ele>
        <time>2018-12-28T01:09:16Z</time>
      </trkpt>
      <trkpt lat="35.430600" lon="-111.761610">
        <ele>2379.325</ele>
        <time>2018-12-28T01:09:36Z</time>
      </trkpt>
      <trkpt lat="35.430750" lon="-111.761760">
        <ele>2378.308</ele>
        <time>2018-12-28T01:09:56Z</time>
      </trkpt>
      <trkpt lat="35.430880" lon="-111.761920">
        <ele>2376.020</ele>
        <time>2018-12-28T01:10:16Z</time>
      </trkpt>
      <trkpt lat="35.431080" lon="-111.762130">
        <ele>2373.698</ele>
        <time>2018-12-28T01:10:36Z</time>
      </trkpt>
      <trkpt lat="35.431220" lon="-111.762260">
        <ele>2372.163</ele>
        <time>2018-12-28T01:10:56Z</time>
      </trkpt>
      <trkpt lat="35.431380" lon="-111.762410">
        <ele>2369.494</ele>
        <time>2018-12-28T01:11:16Z</time>
      </trkpt>
      <trkpt lat="35.431500" lon="-111.762510">
        <ele>2368.059</ele>
        <time>2018-12-28T01:11:36Z</time>
      </trkpt>
      <trkpt lat="35.431620" lon="-111.762590">
        <ele>2366.659</ele>
        <time>2018-12-28T01:11:56Z</time>
      </trkpt>
      <trkpt lat="35.431790" lon="-111.762690">
        <ele>2364.661</ele>
        <time>2018-12-28T01:12:16Z</time>
      </trkpt>
      <trkpt lat="35.431970" lon="-111.762790">
        <ele>2362.495</ele>
        <time>2018-12-28T01:12:36Z</time>
      </trkpt>
      <trkpt lat="35.432070" lon="-111.762840">
        <ele>2361.588</ele>
        <time>2018-12-28T01:12:56Z</time>
      </trkpt>
      <trkpt lat="35.432190" lon="-111.762890">
        <ele>2360.624</ele>
        <time>2018-12-28T01:13:16Z</time>
      </trkpt>
      <trkpt lat="35.432370" lon="-111.762940">
        <ele>2359.626</ele>
        <time>2018-12-28T01:13:36Z</time>
      </trkpt>
      <trkpt lat="35.432500" lon="-111.762980">
        <ele>2358.608</ele>
        <time>2018-12-28T01:13:56Z</time>
      </trkpt>
      <trkpt lat="35.432610" lon="-111.763000">
        <ele>2357.991</ele>
        <time>2018-12-28T01:14:16Z</time>
      </trkpt>
      <trkpt lat="35.432750" lon="-111.763030">
        <ele>2356.639</ele>
        <time>2018-12-28T01:14:36Z</time>
      </trkpt>
      <trkpt lat="35.432860" lon="-111.763040">
        <ele>2355.794</ele>
        <time>2018-12-28T01:14:56Z</time>
      </trkpt>
      <trkpt lat="35.433000" lon="-111.763060">
        <ele>2354.435</ele>
        <time>2018-12-28T01:15:16Z</time>
      </trkpt>
      <trkpt lat="35.433100" lon="-111.763060">
        <ele>2353.570</ele>
        <time>2018-12-28T01:15:36Z</time>
      </trkpt>
      <trkpt lat="35.433300" lon="-111.763050">
        <ele>2352.140</ele>
        <time>2018-12-28T01:15:56Z</time>
      </trkpt>
      <trkpt lat="35.433480" lon="-111.763030">
        <ele>2351.092</ele>
        <time>2018-12-28T01:16:16Z</time>
      </trkpt>
      <trkpt lat="35.434150" lon="-111.762960">
        <ele>2348.836</ele>
        <time>2018-12-28T01:16:36Z</time>
      </trkpt>
      <trkpt lat="35.434880" lon="-111.762880">
        <ele>2346.034</ele>
        <time>2018-12-28T01:16:56Z</time>
      </trkpt>
      <trkpt lat="35.435550" lon="-111.762800">
        <ele>2344.055</ele>
        <time>2018-12-28T01:17:16Z</time>
      </trkpt>
      <trkpt lat="35.435950" lon="-111.762750">
        <ele>2343.310</ele>
        <time>2018-12-28T01:17:36Z</time>
      </trkpt>
      <trkpt lat="35.436130" lon="-111.762720">
        <ele>2343.108</ele>
        <time>2018-12-28T01:17:56Z</time>
      </trkpt>
      <trkpt lat="35.436300" lon="-111.762700">
        <ele>2342.486</ele>
        <time>2018-12-28T01:18:16Z</time>
      </trkpt>
      <trkpt lat="35.436530" lon="-111.762660">
        <ele>2340.654</ele>
        <time>2018-12-28T01:18:36Z</time>
      </trkpt>
      <trkpt lat="35.436880" lon="-111.762570">
        <ele>2338.939</ele>
        <time>2018-12-28T01:18:56Z</time>
      </trkpt>
      <trkpt lat="35.437230" lon="-111.762500">
        <ele>2336.730</ele>
        <time>2018-12-28T01:19:16Z</time>
      </trkpt>
      <trkpt lat="35.438640" lon="-111.762160">
        <ele>2330.995</ele>
        <time>2018-12-28T01:19:36Z</time>
      </trkpt>
      <trkpt lat="35.439040" lon="-111.762070">
        <ele>2330.945</ele>
        <time>2018-12-28T01:19:56Z</time>
      </trkpt>
      <trkpt lat="35.439990" lon="-111.761850">
        <ele>2330.257</ele>
        <time>2018-12-28T01:20:16Z</time>
      </trkpt>
      <trkpt lat="35.440550" lon="-111.761720">
        <ele>2328.471</ele>
        <time>2018-12-28T01:20:36Z</time>
      </trkpt>
      <trkpt lat="35.441230" lon="-111.761560">
        <ele>2326.993</ele>
        <time>2018-12-28T01:20:56Z</time>
      </trkpt>
      <trkpt lat="35.441540" lon="-111.761490">
        <ele>2326.465</ele>
        <time>2018-12-28T01:21:16Z</time>
      </trkpt>
      <trkpt lat="35.441680" lon="-111.761470">
        <ele>2326.021</ele>
        <time>2018-12-28T01:21:36Z</time>
      </trkpt>
      <trkpt lat="35.441870" lon="-111.761440">
        <ele>2325.608</ele>
        <time>2018-12-28T01:21:56Z</time>
      </trkpt>
      <trkpt lat="35.442060" lon="-111.761430">
        <ele>2325.112</ele>
        <time>2018-12-28T01:22:16Z</time>
      </trkpt>
      <trkpt lat="35.442300" lon="-111.761440">
        <ele>2324.220</ele>
        <time>2018-12-28T01:22:36Z</time>
      </trkpt>
      <trkpt lat="35.442430" lon="-111.761440">
        <ele>2323.725</ele>
        <time>2018-12-28T01:22:56Z</time>
      </trkpt>
      <trkpt lat="35.442550" lon="-111.761450">
        <ele>2323.136</ele>
        <time>2018-12-28T01:23:16Z</time>
      </trkpt>
      <trkpt lat="35.442660" lon="-111.761470">
        <ele>2322.611</ele>
        <time>2018-12-28T01:23:36Z</time>
      </trkpt>
      <trkpt lat="35.442780" lon="-111.761490">
        <ele>2322.171</ele>
        <time>2018-12-28T01:23:56Z</time>
      </trkpt>
      <trkpt lat="35.442940" lon="-111.761520">
        <ele>2321.513</ele>
        <time>2018-12-28T01:24:16Z</time>
      </trkpt>
      <trkpt lat="35.443190" lon="-111.761590">
        <ele>2320.167</ele>
        <time>2018-12-28T01:24:36Z</time>
      </trkpt>
      <trkpt lat="35.443350" lon="-111.761650">
        <ele>2318.967</ele>
        <time>2018-12-28T01:24:56Z</time>
      </trkpt>
      <trkpt lat="35.443440" lon="-111.761690">
        <ele>2318.381</ele>
        <time>2018-12-28T01:25:16Z</time>
      </trkpt>
      <trkpt lat="35.443580" lon="-111.761750">
        <ele>2317.319</ele>
        <time>2018-12-28T01:25:36Z</time>
      </trkpt>
      <trkpt lat="35.443680" lon="-111.761800">
        <ele>2316.408</ele>
        <time>2018-12-28T01:25:56Z</time>
      </trkpt>
      <trkpt lat="35.443830" lon="-111.761880">
        <ele>2315.129</ele>
        <time>2018-12-28T01:26:16Z</time>
      </trkpt>
      <trkpt lat="35.443970" lon="-111.761970">
        <ele>2313.817</ele>
        <time>2018-12-28T01:26:36Z</time>
      </trkpt>
      <trkpt lat="35.444070" lon="-111.762050">
        <ele>2313.012</ele>
        <time>2018-12-28T01:26:56Z</time>
      </trkpt>
      <trkpt lat="35.444160" lon="-111.762110">
        <ele>2312.423</ele>
        <time>2018-12-28T01:27:16Z</time>
      </trkpt>
      <trkpt lat="35.444240" lon="-111.762170">
        <ele>2312.068</ele>
        <time>2018-12-28T01:27:36Z</time>
      </trkpt>
      <trkpt lat="35.444310" lon="-111.762220">
        <ele>2311.618</ele>
        <time>2018-12-28T01:27:56Z</time>
      </trkpt>
      <trkpt lat="35.444390" lon="-111.762290">
        <ele>2311.280</ele>
        <time>2018-12-28T01:28:16Z</time>
      </trkpt>
      <trkpt lat="35.444460" lon="-111.762350">
        <ele>2310.874</ele>
        <time>2018-12-28T01:28:36Z</time>
      </trkpt>
      <trkpt lat="35.444550" lon="-111.762440">
        <ele>2310.361</ele>
        <time>2018-12-28T01:28:56Z</time>
      </trkpt>
      <trkpt lat="35.444710" lon="-111.762590">
        <ele>2309.421</ele>
        <time>2018-12-28T01:29:16Z</time>
      </trkpt>
      <trkpt lat="35.444780" lon="-111.762660">
        <ele>2308.913</ele>
        <time>2018-12-28T01:29:36Z</time>
      </trkpt>
      <trkpt lat="35.444850" lon="-111.762740">
        <ele>2308.408</ele>
        <time>2018-12-28T01:29:56Z</time>
      </trkpt>
      <trkpt lat="35.444910" lon="-111.762810">
        <ele>2308.039</ele>
        <time>2018-12-28T01:30:16Z</time>
      </trkpt>
      <trkpt lat="35.444970" lon="-111.762880">
        <ele>2307.677</ele>
        <time>2018-12-28T01:30:36Z</time>
      </trkpt>
      <trkpt lat="35.445050" lon="-111.762990">
        <ele>2307.172</ele>
        <time>2018-12-28T01:30:56Z</time>
      </trkpt>
      <trkpt lat="35.445130" lon="-111.763100">
        <ele>2306.673</ele>
        <time>2018-12-28T01:31:16Z</time>
      </trkpt>
      <trkpt lat="35.445210" lon="-111.763220">
        <ele>2306.168</ele>
        <time>2018-12-28T01:31:36Z</time>
      </trkpt>
      <trkpt lat="35.445280" lon="-111.763320">
        <ele>2305.848</ele>
        <time>2018-12-28T01:31:56Z</time>
      </trkpt>
      <trkpt lat="35.445420" lon="-111.763560">
        <ele>2305.380</ele>
        <time>2018-12-28T01:32:16Z</time>
      </trkpt>
      <trkpt lat="35.445580" lon="-111.763850">
        <ele>2305.034</ele>
        <time>2018-12-28T01:32:36Z</time>
      </trkpt>
      <trkpt lat="35.445940" lon="-111.764460">
        <ele>2304.986</ele>
        <time>2018-12-28T01:32:56Z</time>
      </trkpt>
      <trkpt lat="35.446110" lon="-111.764750">
        <ele>2304.760</ele>
        <time>2018-12-28T01:33:16Z</time>
      </trkpt>
      <trkpt lat="35.446280" lon="-111.765040">
        <ele>2304.426</ele>
        <time>2018-12-28T01:33:36Z</time>
      </trkpt>
      <trkpt lat="35.446440" lon="-111.765330">
        <ele>2304.608</ele>
        <time>2018-12-28T01:33:56Z</time>
      </trkpt>
      <trkpt lat="35.446640" lon="-111.765660">
        <ele>2304.461</ele>
        <time>2018-12-28T01:34:16Z</time>
      </trkpt>
      <trkpt lat="35.446940" lon="-111.766190">
        <ele>2303.419</ele>
        <time>2018-12-28T01:34:36Z</time>
      </trkpt>
      <trkpt lat="35.447280" lon="-111.766770">
        <ele>2302.564</ele>
        <time>2018-12-28T01:34:56Z</time>
      </trkpt>
      <trkpt lat="35.447470" lon="-111.767110">
        <ele>2302.395</ele>
        <time>2018-12-28T01:35:16Z</time>
      </trkpt>
      <trkpt lat="35.447590" lon="-111.767330">
        <ele>2302.460</ele>
        <time>2018-12-28T01:35:36Z</time>
      </trkpt>
      <trkpt lat="35.447690" lon="-111.767490">
        <ele>2302.220</ele>
        <time>2018-12-28T01:35:56Z</time>
      </trkpt>
      <trkpt lat="35.447760" lon="-111.767610">
        <ele>2302.152</ele>
        <time>2018-12-28T01:36:16Z</time>
      </trkpt>
      <trkpt lat="35.447860" lon="-111.767790">
        <ele>2301.766</ele>
        <time>2018-12-28T01:36:36Z</time>
      </trkpt>
      <trkpt lat="35.448110" lon="-111.768220">
        <ele>2300.722</ele>
        <time>2018-12-28T01:36:56Z</time>
      </trkpt>
      <trkpt lat="35.448290" lon="-111.768520">
        <ele>2300.262</ele>
        <time>2018-12-28T01:37:16Z</time>
      </trkpt>
      <trkpt lat="35.448450" lon="-111.768790">
        <ele>2299.708</ele>
        <time>2018-12-28T01:37:36Z</time>
      </trkpt>
      <trkpt lat="35.448590" lon="-111.769040">
        <ele>2299.408</ele>
        <time>2018-12-28T01:37:56Z</time>
      </trkpt>
      <trkpt lat="35.448750" lon="-111.769310">
        <ele>2299.225</ele>
        <time>2018-12-28T01:38:16Z</time>
      </trkpt>
      <trkpt lat="35.448930" lon="-111.769630">
        <ele>2298.983</ele>
        <time>2018-12-28T01:38:36Z</time>
      </trkpt>
      <trkpt lat="35.449150" lon="-111.770010">
        <ele>2298.758</ele>
        <time>2018-12-28T01:38:56Z</time>
      </trkpt>
      <trkpt lat="35.449280" lon="-111.770230">
        <ele>2298.599</ele>
        <time>2018-12-28T01:39:16Z</time>
      </trkpt>
      <trkpt lat="35.449420" lon="-111.770460">
        <ele>2298.374</ele>
        <time>2018-12-28T01:39:36Z</time>
      </trkpt>
      <trkpt lat="35.449570" lon="-111.770730">
        <ele>2297.974</ele>
        <time>2018-12-28T01:39:56Z</time>
      </trkpt>
      <trkpt lat="35.449700" lon="-111.770970">
        <ele>2297.766</ele>
        <time>2018-12-28T01:40:16Z</time>
      </trkpt>
      <trkpt lat="35.449860" lon="-111.771240">
        <ele>2297.730</ele>
        <time>2018-12-28T01:40:36Z</time>
      </trkpt>
      <trkpt lat="35.449970" lon="-111.771420">
        <ele>2297.792</ele>
        <time>2018-12-28T01:40:56Z</time>
      </trkpt>
      <trkpt lat="35.450080" lon="-111.771620">
        <ele>2297.773</ele>
        <time>2018-12-28T01:41:16Z</time>
      </trkpt>
      <trkpt lat="35.450180" lon="-111.771780">
        <ele>2297.720</ele>
        <time>2018-12-28T01:41:36Z</time>
      </trkpt>
      <trkpt lat="35.450260" lon="-111.771920">
        <ele>2297.608</ele>
        <time>2018-12-28T01:41:56Z</time>
      </trkpt>
      <trkpt lat="35.450320" lon="-111.772030">
        <ele>2297.632</ele>
        <time>2018-12-28T01:42:16Z</time>
      </trkpt>
      <trkpt lat="35.450380" lon="-111.772130">
        <ele>2297.510</ele>
        <time>2018-12-28T01:42:36Z</time>
      </trkpt>
      <trkpt lat="35.450430" lon="-111.772200">
        <ele>2297.575</ele>
        <time>2018-12-28T01:42:56Z</time>
      </trkpt>
      <trkpt lat="35.450470" lon="-111.772260">
        <ele>2297.516</ele>
        <time>2018-12-28T01:43:16Z</time>
      </trkpt>
      <trkpt lat="35.450520" lon="-111.772330">
        <ele>2297.561</ele>
        <time>2018-12-28T01:43:36Z</time>
      </trkpt>
      <trkpt lat="35.450560" lon="-111.772390">
        <ele>2297.591</ele>
        <time>2018-12-28T01:43:56Z</time>
      </trkpt>
      <trkpt lat="35.450610" lon="-111.772460">
        <ele>2297.573</ele>
        <time>2018-12-28T01:44:16Z</time>
      </trkpt>
      <trkpt lat="35.450680" lon="-111.772550">
        <ele>2297.597</ele>
        <time>2018-12-28T01:44:36Z</time>
      </trkpt>
      <trkpt lat="35.450740" lon="-111.772630">
        <ele>2297.595</ele>
        <time>2018-12-28T01:44:56Z</time>
      </trkpt>
      <trkpt lat="35.450800" lon="-111.772700">
        <ele>2297.449</ele>
        <time>2018-12-28T01:45:16Z</time>
      </trkpt>
      <trkpt lat="35.450860" lon="-111.772760">
        <ele>2297.423</ele>
        <time>2018-12-28T01:45:36Z</time>
      </trkpt>
      <trkpt lat="35.450910" lon="-111.772820">
        <ele>2297.308</ele>
        <time>2018-12-28T01:45:56Z</time>
      </trkpt>
      <trkpt lat="35.450970" lon="-111.772880">
        <ele>2297.322</ele>
        <time>2018-12-28T01:46:16Z</time>
      </trkpt>
      <trkpt lat="35.451050" lon="-111.772950">
        <ele>2297.250</ele>
        <time>2018-12-28T01:46:36Z</time>
      </trkpt>
      <trkpt lat="35.451080" lon="-111.772990">
        <ele>2297.285</ele>
        <time>2018-12-28T01:46:56Z</time>
      </trkpt>
      <trkpt lat="35.451130" lon="-111.773030">
        <ele>2297.116</ele>
        <time>2018-12-28T01:47:16Z</time>
      </trkpt>
      <trkpt lat="35.451190" lon="-111.773090">
        <ele>2297.121</ele>
        <time>2018-12-28T01:47:36Z</time>
      </trkpt>
      <trkpt lat="35.451270" lon="-111.773160">
        <ele>2297.181</ele>
        <time>2018-12-28T01:47:56Z</time>
      </trkpt>
      <trkpt lat="35.451350" lon="-111.773220">
        <ele>2297.153</ele>
        <time>2018-12-28T01:48:16Z</time>
      </trkpt>
      <trkpt lat="35.451420" lon="-111.773270">
        <ele>2297.177</ele>
        <time>2018-12-28T01:48:36Z</time>
      </trkpt>
      <trkpt lat="35.451470" lon="-111.773310">
        <ele>2297.186</ele>
        <time>2018-12-28T01:48:56Z</time>
      </trkpt>
      <trkpt lat="35.451520" lon="-111.773350">
        <ele>2297.160</ele>
        <time>2018-12-28T01:49:16Z</time>
      </trkpt>
      <trkpt lat="35.451610" lon="-111.773410">
        <ele>2297.126</ele>
        <time>2018-12-28T01:49:36Z</time>
      </trkpt>
      <trkpt lat="35.451720" lon="-111.773480">
        <ele>2297.008</ele>
        <time>2018-12-28T01:49:56Z</time>
      </trkpt>
      <trkpt lat="35.451790" lon="-111.773530">
        <ele>2297.091</ele>
        <time>2018-12-28T01:50:16Z</time>
      </trkpt>
      <trkpt lat="35.451860" lon="-111.773570">
        <ele>2296.969</ele>
        <time>2018-12-28T01:50:36Z</time>
      </trkpt>
      <trkpt lat="35.451950" lon="-111.773620">
        <ele>2296.884</ele>
        <time>2018-12-28T01:50:56Z</time>
      </trkpt>
      <trkpt lat="35.452300" lon="-111.773810">
        <ele>2296.765</ele>
        <time>2018-12-28T01:51:16Z</time>
      </trkpt>
      <trkpt lat="35.453030" lon="-111.774210">
        <ele>2296.530</ele>
        <time>2018-12-28T01:51:36Z</time>
      </trkpt>
      <trkpt lat="35.453330" lon="-111.774380">
        <ele>2296.490</ele>
        <time>2018-12-28T01:51:56Z</time>
      </trkpt>
      <trkpt lat="35.453640" lon="-111.774550">
        <ele>2296.092</ele>
        <time>2018-12-28T01:52:16Z</time>
      </trkpt>
      <trkpt lat="35.454640" lon="-111.775100">
        <ele>2294.896</ele>
        <time>2018-12-28T01:52:36Z</time>
      </trkpt>
      <trkpt lat="35.454800" lon="-111.775190">
        <ele>2294.671</ele>
        <time>2018-12-28T01:52:56Z</time>
      </trkpt>
      <trkpt lat="35.455220" lon="-111.775420">
        <ele>2294.241</ele>
        <time>2018-12-28T01:53:16Z</time>
      </trkpt>
      <trkpt lat="35.455600" lon="-111.775630">
        <ele>2293.715</ele>
        <time>2018-12-28T01:53:36Z</time>
      </trkpt>
      <trkpt lat="35.456220" lon="-111.775970">
        <ele>2292.508</ele>
        <time>2018-12-28T01:53:56Z</time>
      </trkpt>
      <trkpt lat="35.456910" lon="-111.776350">
        <ele>2287.510</ele>
        <time>2018-12-28T01:54:16Z</time>
      </trkpt>
      <trkpt lat="35.457360" lon="-111.776600">
        <ele>2286.488</ele>
        <time>2018-12-28T01:54:36Z</time>
      </trkpt>
      <trkpt lat="35.457730" lon="-111.776810">
        <ele>2284.573</ele>
        <time>2018-12-28T01:54:56Z</time>
      </trkpt>
      <trkpt lat="35.458040" lon="-111.776970">
        <ele>2282.764</ele>
        <time>2018-12-28T01:55:16Z</time>
      </trkpt>
      <trkpt lat="35.458350" lon="-111.777150">
        <ele>2281.619</ele>
        <time>2018-12-28T01:55:36Z</time>
      </trkpt>
      <trkpt lat="35.458540" lon="-111.777250">
        <ele>2281.349</ele>
        <time>2018-12-28T01:55:56Z</time>
      </trkpt>
      <trkpt lat="35.458690" lon="-111.777340">
        <ele>2281.231</ele>
        <time>2018-12-28T01:56:16Z</time>
      </trkpt>
      <trkpt lat="35.458900" lon="-111.777480">
        <ele>2281.065</ele>
        <time>2018-12-28T01:56:36Z</time>
      </trkpt>
      <trkpt lat="35.459090" lon="-111.777610">
        <ele>2280.995</ele>
        <time>2018-12-28T01:56:56Z</time>
      </trkpt>
      <trkpt lat="35.459250" lon="-111.777740">
        <ele>2280.549</ele>
        <time>2018-12-28T01:57:16Z</time>
      </trkpt>
      <trkpt lat="35.459410" lon="-111.777870">
        <ele>2280.323</ele>
        <time>2018-12-28T01:57:36Z</time>
      </trkpt>
      <trkpt lat="35.459590" lon="-111.778040">
        <ele>2280.208</ele>
        <time>2018-12-28T01:57:56Z</time>
      </trkpt>
      <trkpt lat="35.459700" lon="-111.778140">
        <ele>2280.082</ele>
        <time>2018-12-28T01:58:16Z</time>
      </trkpt>
      <trkpt lat="35.460170" lon="-111.778640">
        <ele>2279.310</ele>
        <time>2018-12-28T01:58:36Z</time>
      </trkpt>
      <trkpt lat="35.460670" lon="-111.779160">
        <ele>2278.795</ele>
        <time>2018-12-28T01:58:56Z</time>
      </trkpt>
      <trkpt lat="35.461090" lon="-111.779610">
        <ele>2278.946</ele>
        <time>2018-12-28T01:59:16Z</time>
      </trkpt>
      <trkpt lat="35.461520" lon="-111.780050">
        <ele>2279.931</ele>
        <time>2018-12-28T01:59:36Z</time>
      </trkpt>
      <trkpt lat="35.462300" lon="-111.780870">
        <ele>2280.221</ele>
        <time>2018-12-28T01:59:56Z</time>
      </trkpt>
      <trkpt lat="35.464100" lon="-111.782760">
        <ele>2281.913</ele>
        <time>2018-12-28T02:00:16Z</time>
      </trkpt>
      <trkpt lat="35.464600" lon="-111.783280">
        <ele>2281.277</ele>
        <time>2018-12-28T02:00:36Z</time>
      </trkpt>
      <trkpt lat="35.465010" lon="-111.783710">
        <ele>2280.126</ele>
        <time>2018-12-28T02:00:56Z</time>
      </trkpt>
      <trkpt lat="35.465240" lon="-111.783950">
        <ele>2279.447</ele>
        <time>2018-12-28T02:01:16Z</time>
      </trkpt>
      <trkpt lat="35.465470" lon="-111.784190">
        <ele>2278.811</ele>
        <time>2018-12-28T02:01:36Z</time>
      </trkpt>
      <trkpt lat="35.465780" lon="-111.784520">
        <ele>2278.008</ele>
        <time>2018-12-28T02:01:56Z</time>
      </trkpt>
      <trkpt lat="35.466150" lon="-111.784910">
        <ele>2277.295</ele>
        <time>2018-12-28T02:02:16Z</time>
      </trkpt>
      <trkpt lat="35.466370" lon="-111.785140">
        <ele>2276.993</ele>
        <time>2018-12-28T02:02:36Z</time>
      </trkpt>
      <trkpt lat="35.466510" lon="-111.785290">
        <ele>2276.788</ele>
        <time>2018-12-28T02:02:56Z</time>
      </trkpt>
      <trkpt lat="35.467660" lon="-111.786490">
        <ele>2273.929</ele>
        <time>2018-12-28T02:03:16Z</time>
      </trkpt>
      <trkpt lat="35.468060" lon="-111.786900">
        <ele>2273.044</ele>
        <time>2018-12-28T02:03:36Z</time>
      </trkpt>
      <trkpt lat="35.468250" lon="-111.787100">
        <ele>2272.614</ele>
        <time>2018-12-28T02:03:56Z</time>
      </trkpt>
      <trkpt lat="35.468530" lon="-111.787350">
        <ele>2271.916</ele>
        <time>2018-12-28T02:04:16Z</time>
      </trkpt>
      <trkpt lat="35.469030" lon="-111.787870">
        <ele>2270.790</ele>
        <time>2018-12-28T02:04:36Z</time>
      </trkpt>
      <trkpt lat="35.469190" lon="-111.788050">
        <ele>2270.396</ele>
        <time>2018-12-28T02:04:56Z</time>
      </trkpt>
      <trkpt lat="35.469330" lon="-111.788190">
        <ele>2270.031</ele>
        <time>2018-12-28T02:05:16Z</time>
      </trkpt>
      <trkpt lat="35.469570" lon="-111.788440">
        <ele>2269.624</ele>
        <time>2018-12-28T02:05:36Z</time>
      </trkpt>
      <trkpt lat="35.469980" lon="-111.788880">
        <ele>2268.408</ele>
        <time>2018-12-28T02:05:56Z</time>
      </trkpt>
      <trkpt lat="35.470120" lon="-111.789020">
        <ele>2267.582</ele>
        <time>2018-12-28T02:06:16Z</time>
      </trkpt>
      <trkpt lat="35.470390" lon="-111.789300">
        <ele>2265.030</ele>
        <time>2018-12-28T02:06:36Z</time>
      </trkpt>
      <trkpt lat="35.470480" lon="-111.789400">
        <ele>2264.135</ele>
        <time>2018-12-28T02:06:56Z</time>
      </trkpt>
      <trkpt lat="35.470740" lon="-111.789670">
        <ele>2262.826</ele>
        <time>2018-12-28T02:07:16Z</time>
      </trkpt>
      <trkpt lat="35.470900" lon="-111.789840">
        <ele>2262.731</ele>
        <time>2018-12-28T02:07:36Z</time>
      </trkpt>
      <trkpt lat="35.471020" lon="-111.789960">
        <ele>2262.771</ele>
        <time>2018-12-28T02:07:56Z</time>
      </trkpt>
      <trkpt lat="35.471350" lon="-111.790310">
        <ele>2262.193</ele>
        <time>2018-12-28T02:08:16Z</time>
      </trkpt>
      <trkpt lat="35.471560" lon="-111.790520">
        <ele>2261.767</ele>
        <time>2018-12-28T02:08:36Z</time>
      </trkpt>
      <trkpt lat="35.471920" lon="-111.790900">
        <ele>2260.714</ele>
        <time>2018-12-28T02:08:56Z</time>
      </trkpt>
      <trkpt lat="35.472330" lon="-111.791330">
        <ele>2259.254</ele>
        <time>2018-12-28T02:09:16Z</time>
      </trkpt>
      <trkpt lat="35.472660" lon="-111.791680">
        <ele>2257.909</ele>
        <time>2018-12-28T02:09:36Z</time>
      </trkpt>
      <trkpt lat="35.472920" lon="-111.791950">
        <ele>2257.008</ele>
        <time>2018-12-28T02:09:56Z</time>
      </trkpt>
      <trkpt lat="35.473170" lon="-111.792210">
        <ele>2256.424</ele>
        <time>2018-12-28T02:10:16Z</time>
      </trkpt>
      <trkpt lat="35.473410" lon="-111.792470">
        <ele>2255.962</ele>
        <time>2018-12-28T02:10:36Z</time>
      </trkpt>
      <trkpt lat="35.473680" lon="-111.792740">
        <ele>2255.387</ele>
        <time>2018-12-28T02:10:56Z</time>
      </trkpt>
      <trkpt lat="35.473800" lon="-111.792880">
        <ele>2255.158</ele>
        <time>2018-12-28T02:11:16Z</time>
      </trkpt>
      <trkpt lat="35.475030" lon="-111.794160">
        <ele>2252.713</ele>
        <time>2018-12-28T02:11:36Z</time>
      </trkpt>
      <trkpt lat="35.475740" lon="-111.794910">
        <ele>2251.113</ele>
        <time>2018-12-28T02:11:56Z</time>
      </trkpt>
      <trkpt lat="35.476910" lon="-111.796130">
        <ele>2248.415</ele>
        <time>2018-12-28T02:12:16Z</time>
      </trkpt>
      <trkpt lat="35.477510" lon="-111.796750">
        <ele>2246.179</ele>
        <time>2018-12-28T02:12:36Z</time>
      </trkpt>
      <trkpt lat="35.478090" lon="-111.797360">
        <ele>2244.352</ele>
        <time>2018-12-28T02:12:56Z</time>
      </trkpt>
      <trkpt lat="35.478570" lon="-111.797860">
        <ele>2241.353</ele>
        <time>2018-12-28T02:13:16Z</time>
      </trkpt>
      <trkpt lat="35.479050" lon="-111.798370">
        <ele>2239.308</ele>
        <time>2018-12-28T02:13:36Z</time>
      </trkpt>
      <trkpt lat="35.479070" lon="-111.798380">
        <ele>2239.308</ele>
        <time>2018-12-28T02:13:56Z</time>
      </trkpt>
      <trkpt lat="35.479900" lon="-111.799260">
        <ele>2236.978</ele>
        <time>2018-12-28T02:14:16Z</time>
      </trkpt>
      <trkpt lat="35.480150" lon="-111.799530">
        <ele>2236.256</ele>
        <time>2018-12-28T02:14:36Z</time>
      </trkpt>
      <trkpt lat="35.480430" lon="-111.799820">
        <ele>2235.351</ele>
        <time>2018-12-28T02:14:56Z</time>
      </trkpt>
      <trkpt lat="35.480780" lon="-111.800180">
        <ele>2234.222</ele>
        <time>2018-12-28T02:15:16Z</time>
      </trkpt>
      <trkpt lat="35.481140" lon="-111.800560">
        <ele>2233.267</ele>
        <time>2018-12-28T02:15:36Z</time>
      </trkpt>
      <trkpt lat="35.481370" lon="-111.800800">
        <ele>2232.627</ele>
        <time>2018-12-28T02:15:56Z</time>
      </trkpt>
      <trkpt lat="35.481850" lon="-111.801330">
        <ele>2231.759</ele>
        <time>2018-12-28T02:16:16Z</time>
      </trkpt>
      <trkpt lat="35.482070" lon="-111.801560">
        <ele>2231.073</ele>
        <time>2018-12-28T02:16:36Z</time>
      </trkpt>
      <trkpt lat="35.482590" lon="-111.802100">
        <ele>2229.826</ele>
        <time>2018-12-28T02:16:56Z</time>
      </trkpt>
      <trkpt lat="35.483110" lon="-111.802630">
        <ele>2228.747</ele>
        <time>2018-12-28T02:17:16Z</time>
      </trkpt>
      <trkpt lat="35.483430" lon="-111.802970">
        <ele>2228.111</ele>
        <time>2018-12-28T02:17:36Z</time>
      </trkpt>
      <trkpt lat="35.483760" lon="-111.803310">
        <ele>2227.608</ele>
        <time>2018-12-28T02:17:56Z</time>
      </trkpt>
      <trkpt lat="35.484200" lon="-111.803770">
        <ele>2227.025</ele>
        <time>2018-12-28T02:18:16Z</time>
      </trkpt>
      <trkpt lat="35.484540" lon="-111.804140">
        <ele>2226.493</ele>
        <time>2018-12-28T02:18:36Z</time>
      </trkpt>
      <trkpt lat="35.485020" lon="-111.804620">
        <ele>2226.118</ele>
        <time>2018-12-28T02:18:56Z</time>
      </trkpt>
      <trkpt lat="35.485860" lon="-111.805500">
        <ele>2226.169</ele>
        <time>2018-12-28T02:19:16Z</time>
      </trkpt>
      <trkpt lat="35.486320" lon="-111.805980">
        <ele>2224.034</ele>
        <time>2018-12-28T02:19:36Z</time>
      </trkpt>
      <trkpt lat="35.486620" lon="-111.806290">
        <ele>2222.174</ele>
        <time>2018-12-28T02:19:56Z</time>
      </trkpt>
      <trkpt lat="35.487000" lon="-111.806690">
        <ele>2220.886</ele>
        <time>2018-12-28T02:20:16Z</time>
      </trkpt>
      <trkpt lat="35.487270" lon="-111.806970">
        <ele>2220.620</ele>
        <time>2018-12-28T02:20:36Z</time>
      </trkpt>
      <trkpt lat="35.487530" lon="-111.807240">
        <ele>2220.491</ele>
        <time>2018-12-28T02:20:56Z</time>
      </trkpt>
      <trkpt lat="35.487840" lon="-111.807570">
        <ele>2220.281</ele>
        <time>2018-12-28T02:21:16Z</time>
      </trkpt>
      <trkpt lat="35.488120" lon="-111.807860">
        <ele>2220.219</ele>
        <time>2018-12-28T02:21:36Z</time>
      </trkpt>
      <trkpt lat="35.488380" lon="-111.808120">
        <ele>2220.408</ele>
        <time>2018-12-28T02:21:56Z</time>
      </trkpt>
      <trkpt lat="35.488580" lon="-111.808320">
        <ele>2220.492</ele>
        <time>2018-12-28T02:22:16Z</time>
      </trkpt>
      <trkpt lat="35.488720" lon="-111.808460">
        <ele>2220.310</ele>
        <time>2018-12-28T02:22:36Z</time>
      </trkpt>
      <trkpt lat="35.489500" lon="-111.809180">
        <ele>2219.655</ele>
        <time>2018-12-28T02:22:56Z</time>
      </trkpt>
      <trkpt lat="35.490070" lon="-111.809710">
        <ele>2216.516</ele>
        <time>2018-12-28T02:23:16Z</time>
      </trkpt>
      <trkpt lat="35.490830" lon="-111.810420">
        <ele>2214.461</ele>
        <time>2018-12-28T02:23:36Z</time>
      </trkpt>
      <trkpt lat="35.491640" lon="-111.811180">
        <ele>2212.381</ele>
        <time>2018-12-28T02:23:56Z</time>
      </trkpt>
      <trkpt lat="35.492520" lon="-111.812000">
        <ele>2209.323</ele>
        <time>2018-12-28T02:24:16Z</time>
      </trkpt>
      <trkpt lat="35.493240" lon="-111.812670">
        <ele>2208.797</ele>
        <time>2018-12-28T02:24:36Z</time>
      </trkpt>
      <trkpt lat="35.496840" lon="-111.816030">
        <ele>2201.793</ele>
        <time>2018-12-28T02:24:56Z</time>
      </trkpt>
      <trkpt lat="35.497730" lon="-111.816860">
        <ele>2201.465</ele>
        <time>2018-12-28T02:25:16Z</time>
      </trkpt>
      <trkpt lat="35.498280" lon="-111.817360">
        <ele>2198.821</ele>
        <time>2018-12-28T02:25:36Z</time>
      </trkpt>
      <trkpt lat="35.498630" lon="-111.817690">
        <ele>2197.708</ele>
        <time>2018-12-28T02:25:56Z</time>
      </trkpt>
      <trkpt lat="35.498890" lon="-111.817920">
        <ele>2197.022</ele>
        <time>2018-12-28T02:26:16Z</time>
      </trkpt>
      <trkpt lat="35.499190" lon="-111.818150">
        <ele>2196.760</ele>
        <time>2018-12-28T02:26:36Z</time>
      </trkpt>
      <trkpt lat="35.499620" lon="-111.818440">
        <ele>2196.385</ele>
        <time>2018-12-28T02:26:56Z</time>
      </trkpt>
      <trkpt lat="35.500010" lon="-111.818700">
        <ele>2195.326</ele>
        <time>2018-12-28T02:27:16Z</time>
      </trkpt>
      <trkpt lat="35.500480" lon="-111.819020">
        <ele>2194.611</ele>
        <time>2018-12-28T02:27:36Z</time>
      </trkpt>
      <trkpt lat="35.500970" lon="-111.819340">
        <ele>2194.161</ele>
        <time>2018-12-28T02:27:56Z</time>
      </trkpt>
      <trkpt lat="35.501360" lon="-111.819600">
        <ele>2193.763</ele>
        <time>2018-12-28T02:28:16Z</time>
      </trkpt>
      <trkpt lat="35.501700" lon="-111.819820">
        <ele>2193.357</ele>
        <time>2018-12-28T02:28:36Z</time>
      </trkpt>
      <trkpt lat="35.502000" lon="-111.820020">
        <ele>2192.734</ele>
        <time>2018-12-28T02:28:56Z</time>
      </trkpt>
      <trkpt lat="35.502210" lon="-111.820160">
        <ele>2192.355</ele>
        <time>2018-12-28T02:29:16Z</time>
      </trkpt>
      <trkpt lat="35.502400" lon="-111.820280">
        <ele>2191.810</ele>
        <time>2018-12-28T02:29:36Z</time>
      </trkpt>
      <trkpt lat="35.503320" lon="-111.820900">
        <ele>2189.408</ele>
        <time>2018-12-28T02:29:56Z</time>
      </trkpt>
      <trkpt lat="35.503660" lon="-111.821120">
        <ele>2189.156</ele>
        <time>2018-12-28T02:30:16Z</time>
      </trkpt>
      <trkpt lat="35.503770" lon="-111.821190">
        <ele>2189.124</ele>
        <time>2018-12-28T02:30:36Z</time>
      </trkpt>
      <trkpt lat="35.503900" lon="-111.821280">
        <ele>2189.229</ele>
        <time>2018-12-28T02:30:56Z</time>
      </trkpt>
      <trkpt lat="35.504050" lon="-111.821380">
        <ele>2189.590</ele>
        <time>2018-12-28T02:31:16Z</time>
      </trkpt>
      <trkpt lat="35.504230" lon="-111.821510">
        <ele>2189.815</ele>
        <time>2018-12-28T02:31:36Z</time>
      </trkpt>
      <trkpt lat="35.504390" lon="-111.821640">
        <ele>2190.415</ele>
        <time>2018-12-28T02:31:56Z</time>
      </trkpt>
      <trkpt lat="35.504550" lon="-111.821770">
        <ele>2190.617</ele>
        <time>2018-12-28T02:32:16Z</time>
      </trkpt>
      <trkpt lat="35.504770" lon="-111.821970">
        <ele>2189.691</ele>
        <time>2018-12-28T02:32:36Z</time>
      </trkpt>
      <trkpt lat="35.504980" lon="-111.822170">
        <ele>2188.997</ele>
        <time>2018-12-28T02:32:56Z</time>
      </trkpt>
      <trkpt lat="35.505170" lon="-111.822370">
        <ele>2188.223</ele>
        <time>2018-12-28T02:33:16Z</time>
      </trkpt>
      <trkpt lat="35.505300" lon="-111.822510">
        <ele>2187.525</ele>
        <time>2018-12-28T02:33:36Z</time>
      </trkpt>
      <trkpt lat="35.505480" lon="-111.822690">
        <ele>2186.908</ele>
        <time>2018-12-28T02:33:56Z</time>
      </trkpt>
      <trkpt lat="35.506100" lon="-111.823360">
        <ele>2189.942</ele>
        <time>2018-12-28T02:34:16Z</time>
      </trkpt>
      <trkpt lat="35.506530" lon="-111.823820">
        <ele>2192.170</ele>
        <time>2018-12-28T02:34:36Z</time>
      </trkpt>
      <trkpt lat="35.507380" lon="-111.824720">
        <ele>2188.455</ele>
        <time>2018-12-28T02:34:56Z</time>
      </trkpt>
      <trkpt lat="35.507520" lon="-111.824890">
        <ele>2187.696</ele>
        <time>2018-12-28T02:35:16Z</time>
      </trkpt>
      <trkpt lat="35.507630" lon="-111.825020">
        <ele>2186.731</ele>
        <time>2018-12-28T02:35:36Z</time>
      </trkpt>
      <trkpt lat="35.507720" lon="-111.825140">
        <ele>2185.721</ele>
        <time>2018-12-28T02:35:56Z</time>
      </trkpt>
      <trkpt lat="35.507800" lon="-111.825240">
        <ele>2184.933</ele>
        <time>2018-12-28T02:36:16Z</time>
      </trkpt>
      <trkpt lat="35.507870" lon="-111.825350">
        <ele>2184.387</ele>
        <time>2018-12-28T02:36:36Z</time>
      </trkpt>
      <trkpt lat="35.507930" lon="-111.825450">
        <ele>2183.847</ele>
        <time>2018-12-28T02:36:56Z</time>
      </trkpt>
      <trkpt lat="35.507980" lon="-111.825550">
        <ele>2183.429</ele>
        <time>2018-12-28T02:37:16Z</time>
      </trkpt>
      <trkpt lat="35.508040" lon="-111.825660">
        <ele>2183.021</ele>
        <time>2018-12-28T02:37:36Z</time>
      </trkpt>
      <trkpt lat="35.508110" lon="-111.825790">
        <ele>2182.308</ele>
        <time>2018-12-28T02:37:56Z</time>
      </trkpt>
      <trkpt lat="35.508330" lon="-111.826250">
        <ele>2180.347</ele>
        <time>2018-12-28T02:38:16Z</time>
      </trkpt>
      <trkpt lat="35.508470" lon="-111.826540">
        <ele>2178.275</ele>
        <time>2018-12-28T02:38:36Z</time>
      </trkpt>
      <trkpt lat="35.508570" lon="-111.826730">
        <ele>2177.110</ele>
        <time>2018-12-28T02:38:56Z</time>
      </trkpt>
      <trkpt lat="35.508650" lon="-111.826860">
        <ele>2176.431</ele>
        <time>2018-12-28T02:39:16Z</time>
      </trkpt>
      <trkpt lat="35.508690" lon="-111.826930">
        <ele>2176.016</ele>
        <time>2018-12-28T02:39:36Z</time>
      </trkpt>
      <trkpt lat="35.508750" lon="-111.827020">
        <ele>2175.486</ele>
        <time>2018-12-28T02:39:56Z</time>
      </trkpt>
      <trkpt lat="35.508850" lon="-111.827140">
        <ele>2174.718</ele>
        <time>2018-12-28T02:40:16Z</time>
      </trkpt>
      <trkpt lat="35.508900" lon="-111.827210">
        <ele>2174.272</ele>
        <time>2018-12-28T02:40:36Z</time>
      </trkpt>
      <trkpt lat="35.508960" lon="-111.827290">
        <ele>2173.758</ele>
        <time>2018-12-28T02:40:56Z</time>
      </trkpt>
      <trkpt lat="35.509030" lon="-111.827350">
        <ele>2173.452</ele>
        <time>2018-12-28T02:41:16Z</time>
      </trkpt>
      <trkpt lat="35.509090" lon="-111.827420">
        <ele>2172.917</ele>
        <time>2018-12-28T02:41:36Z</time>
      </trkpt>
      <trkpt lat="35.509160" lon="-111.827480">
        <ele>2172.508</ele>
        <time>2018-12-28T02:41:56Z</time>
      </trkpt>
      <trkpt lat="35.509240" lon="-111.827550">
        <ele>2172.028</ele>
        <time>2018-12-28T02:42:16Z</time>
      </trkpt>
      <trkpt lat="35.509340" lon="-111.827640">
        <ele>2171.426</ele>
        <time>2018-12-28T02:42:36Z</time>
      </trkpt>
      <trkpt lat="35.509430" lon="-111.827700">
        <ele>2171.081</ele>
        <time>2018-12-28T02:42:56Z</time>
      </trkpt>
      <trkpt lat="35.509530" lon="-111.827770">
        <ele>2170.522</ele>
        <time>2018-12-28T02:43:16Z</time>
      </trkpt>
      <trkpt lat="35.509770" lon="-111.827930">
        <ele>2169.697</ele>
        <time>2018-12-28T02:43:36Z</time>
      </trkpt>
      <trkpt lat="35.510070" lon="-111.828140">
        <ele>2167.447</ele>
        <time>2018-12-28T02:43:56Z</time>
      </trkpt>
      <trkpt lat="35.510270" lon="-111.828300">
        <ele>2165.479</ele>
        <time>2018-12-28T02:44:16Z</time>
      </trkpt>
      <trkpt lat="35.510470" lon="-111.828460">
        <ele>2163.063</ele>
        <time>2018-12-28T02:44:36Z</time>
      </trkpt>
      <trkpt lat="35.510640" lon="-111.828620">
        <ele>2159.973</ele>
        <time>2018-12-28T02:44:56Z</time>
      </trkpt>
      <trkpt lat="35.510730" lon="-111.828710">
        <ele>2159.585</ele>
        <time>2018-12-28T02:45:16Z</time>
      </trkpt>
      <trkpt lat="35.510830" lon="-111.828800">
        <ele>2158.913</ele>
        <time>2018-12-28T02:45:36Z</time>
      </trkpt>
      <trkpt lat="35.510960" lon="-111.828930">
        <ele>2157.908</ele>
        <time>2018-12-28T02:45:56Z</time>
      </trkpt>
      <trkpt lat="35.511090" lon="-111.829070">
        <ele>2156.970</ele>
        <time>2018-12-28T02:46:16Z</time>
      </trkpt>
      <trkpt lat="35.511230" lon="-111.829220">
        <ele>2155.638</ele>
        <time>2018-12-28T02:46:36Z</time>
      </trkpt>
      <trkpt lat="35.511460" lon="-111.829470">
        <ele>2154.783</ele>
        <time>2018-12-28T02:46:56Z</time>
      </trkpt>
      <trkpt lat="35.511600" lon="-111.829620">
        <ele>2154.424</ele>
        <time>2018-12-28T02:47:16Z</time>
      </trkpt>
      <trkpt lat="35.511780" lon="-111.829830">
        <ele>2154.319</ele>
        <time>2018-12-28T02:47:36Z</time>
      </trkpt>
      <trkpt lat="35.511970" lon="-111.830030">
        <ele>2154.299</ele>
        <time>2018-12-28T02:47:56Z</time>
      </trkpt>
      <trkpt lat="35.512180" lon="-111.830260">
        <ele>2152.881</ele>
        <time>2018-12-28T02:48:16Z</time>
      </trkpt>
      <trkpt lat="35.512390" lon="-111.830490">
        <ele>2150.125</ele>
        <time>2018-12-28T02:48:36Z</time>
      </trkpt>
      <trkpt lat="35.512630" lon="-111.830760">
        <ele>2145.414</ele>
        <time>2018-12-28T02:48:56Z</time>
      </trkpt>
      <trkpt lat="35.512980" lon="-111.831150">
        <ele>2142.954</ele>
        <time>2018-12-28T02:49:16Z</time>
      </trkpt>
      <trkpt lat="35.513280" lon="-111.831480">
        <ele>2140.709</ele>
        <time>2018-12-28T02:49:36Z</time>
      </trkpt>
      <trkpt lat="35.513600" lon="-111.831830">
        <ele>2139.108</ele>
        <time>2018-12-28T02:49:56Z</time>
      </trkpt>
      <trkpt lat="35.513830" lon="-111.832100">
        <ele>2137.974</ele>
        <time>2018-12-28T02:50:16Z</time>
      </trkpt>
      <trkpt lat="35.514050" lon="-111.832370">
        <ele>2136.652</ele>
        <time>2018-12-28T02:50:36Z</time>
      </trkpt>
      <trkpt lat="35.514260" lon="-111.832650">
        <ele>2135.667</ele>
        <time>2018-12-28T02:50:56Z</time>
      </trkpt>
      <trkpt lat="35.514540" lon="-111.833020">
        <ele>2134.438</ele>
        <time>2018-12-28T02:51:16Z</time>
      </trkpt>
      <trkpt lat="35.514710" lon="-111.833260">
        <ele>2131.983</ele>
        <time>2018-12-28T02:51:36Z</time>
      </trkpt>
      <trkpt lat="35.514920" lon="-111.833580">
        <ele>2129.573</ele>
        <time>2018-12-28T02:51:56Z</time>
      </trkpt>
      <trkpt lat="35.515070" lon="-111.833800">
        <ele>2129.145</ele>
        <time>2018-12-28T02:52:16Z</time>
      </trkpt>
      <trkpt lat="35.515200" lon="-111.834010">
        <ele>2128.139</ele>
        <time>2018-12-28T02:52:36Z</time>
      </trkpt>
      <trkpt lat="35.515450" lon="-111.834410">
        <ele>2124.958</ele>
        <time>2018-12-28T02:52:56Z</time>
      </trkpt>
      <trkpt lat="35.515720" lon="-111.834860">
        <ele>2121.352</ele>
        <time>2018-12-28T02:53:16Z</time>
      </trkpt>
      <trkpt lat="35.515800" lon="-111.835010">
        <ele>2120.217</ele>
        <time>2018-12-28T02:53:36Z</time>
      </trkpt>
      <trkpt lat="35.515870" lon="-111.835110">
        <ele>2119.408</ele>
        <time>2018-12-28T02:53:56Z</time>
      </trkpt>
      <trkpt lat="35.515930" lon="-111.835210">
        <ele>2118.798</ele>
        <time>2018-12-28T02:54:16Z</time>
      </trkpt>
      <trkpt lat="35.516070" lon="-111.835390">
        <ele>2117.186</ele>
        <time>2018-12-28T02:54:36Z</time>
      </trkpt>
      <trkpt lat="35.516180" lon="-111.835540">
        <ele>2116.531</ele>
        <time>2018-12-28T02:54:56Z</time>
      </trkpt>
      <trkpt lat="35.516280" lon="-111.835650">
        <ele>2116.012</ele>
        <time>2018-12-28T02:55:16Z</time>
      </trkpt>
      <trkpt lat="35.516400" lon="-111.835770">
        <ele>2113.697</ele>
        <time>2018-12-28T02:55:36Z</time>
      </trkpt>
      <trkpt lat="35.516500" lon="-111.835880">
        <ele>2112.867</ele>
        <time>2018-12-28T02:55:56Z</time>
      </trkpt>
      <trkpt lat="35.516600" lon="-111.835970">
        <ele>2112.889</ele>
        <time>2018-12-28T02:56:16Z</time>
      </trkpt>
      <trkpt lat="35.516690" lon="-111.836050">
        <ele>2112.833</ele>
        <time>2018-12-28T02:56:36Z</time>
      </trkpt>
      <trkpt lat="35.516780" lon="-111.836120">
        <ele>2112.831</ele>
        <time>2018-12-28T02:56:56Z</time>
      </trkpt>
      <trkpt lat="35.516890" lon="-111.836210">
        <ele>2112.861</ele>
        <time>2018-12-28T02:57:16Z</time>
      </trkpt>
      <trkpt lat="35.517030" lon="-111.836310">
        <ele>2112.507</ele>
        <time>2018-12-28T02:57:36Z</time>
      </trkpt>
      <trkpt lat="35.517180" lon="-111.836400">
        <ele>2112.008</ele>
        <time>2018-12-28T02:57:56Z</time>
      </trkpt>
      <trkpt lat="35.517350" lon="-111.836500">
        <ele>2111.456</ele>
        <time>2018-12-28T02:58:16Z</time>
      </trkpt>
      <trkpt lat="35.517660" lon="-111.836670">
        <ele>2109.464</ele>
        <time>2018-12-28T02:58:36Z</time>
      </trkpt>
      <trkpt lat="35.517920" lon="-111.836810">
        <ele>2108.259</ele>
        <time>2018-12-28T02:58:56Z</time>
      </trkpt>
      <trkpt lat="35.518230" lon="-111.836980">
        <ele>2107.070</ele>
        <time>2018-12-28T02:59:16Z</time>
      </trkpt>
      <trkpt lat="35.518570" lon="-111.837170">
        <ele>2105.535</ele>
        <time>2018-12-28T02:59:36Z</time>
      </trkpt>
      <trkpt lat="35.518920" lon="-111.837360">
        <ele>2103.355</ele>
        <time>2018-12-28T02:59:56Z</time>
      </trkpt>
      <trkpt lat="35.519720" lon="-111.837810">
        <ele>2099.397</ele>
        <time>2018-12-28T03:00:16Z</time>
      </trkpt>
      <trkpt lat="35.520080" lon="-111.838020">
        <ele>2097.631</ele>
        <time>2018-12-28T03:00:36Z</time>
      </trkpt>
      <trkpt lat="35.520250" lon="-111.838110">
        <ele>2096.837</ele>
        <time>2018-12-28T03:00:56Z</time>
      </trkpt>
      <trkpt lat="35.520430" lon="-111.838210">
        <ele>2096.149</ele>
        <time>2018-12-28T03:01:16Z</time>
      </trkpt>
      <trkpt lat="35.520640" lon="-111.838330">
        <ele>2095.713</ele>
        <time>2018-12-28T03:01:36Z</time>
      </trkpt>
      <trkpt lat="35.520960" lon="-111.838500">
        <ele>2095.108</ele>
        <time>2018-12-28T03:01:56Z</time>
      </trkpt>
      <trkpt lat="35.521380" lon="-111.838740">
        <ele>2093.856</ele>
        <time>2018-12-28T03:02:16Z</time>
      </trkpt>
      <trkpt lat="35.521580" lon="-111.838850">
        <ele>2092.994</ele>
        <time>2018-12-28T03:02:36Z</time>
      </trkpt>
      <trkpt lat="35.521800" lon="-111.838970">
        <ele>2091.649</ele>
        <time>2018-12-28T03:02:56Z</time>
      </trkpt>
      <trkpt lat="35.522030" lon="-111.839100">
        <ele>2089.840</ele>
        <time>2018-12-28T03:03:16Z</time>
      </trkpt>
      <trkpt lat="35.522240" lon="-111.839220">
        <ele>2088.975</ele>
        <time>2018-12-28T03:03:36Z</time>
      </trkpt>
      <trkpt lat="35.522480" lon="-111.839360">
        <ele>2088.445</ele>
        <time>2018-12-28T03:03:56Z</time>
      </trkpt>
      <trkpt lat="35.522870" lon="-111.839570">
        <ele>2087.017</ele>
        <time>2018-12-28T03:04:16Z</time>
      </trkpt>
      <trkpt lat="35.523040" lon="-111.839670">
        <ele>2086.761</ele>
        <time>2018-12-28T03:04:36Z</time>
      </trkpt>
      <trkpt lat="35.523240" lon="-111.839780">
        <ele>2086.621</ele>
        <time>2018-12-28T03:04:56Z</time>
      </trkpt>
      <trkpt lat="35.523550" lon="-111.839940">
        <ele>2086.741</ele>
        <time>2018-12-28T03:05:16Z</time>
      </trkpt>
      <trkpt lat="35.523940" lon="-111.840160">
        <ele>2086.605</ele>
        <time>2018-12-28T03:05:36Z</time>
      </trkpt>
      <trkpt lat="35.524280" lon="-111.840360">
        <ele>2085.208</ele>
        <time>2018-12-28T03:05:56Z</time>
      </trkpt>
      <trkpt lat="35.524730" lon="-111.840600">
        <ele>2085.745</ele>
        <time>2018-12-28T03:06:16Z</time>
      </trkpt>
      <trkpt lat="35.524900" lon="-111.840690">
        <ele>2086.383</ele>
        <time>2018-12-28T03:06:36Z</time>
      </trkpt>
      <trkpt lat="35.525130" lon="-111.840820">
        <ele>2088.358</ele>
        <time>2018-12-28T03:06:56Z</time>
      </trkpt>
      <trkpt lat="35.525230" lon="-111.840880">
        <ele>2088.669</ele>
        <time>2018-12-28T03:07:16Z</time>
      </trkpt>
      <trkpt lat="35.525330" lon="-111.840930">
        <ele>2088.964</ele>
        <time>2018-12-28T03:07:36Z</time>
      </trkpt>
      <trkpt lat="35.525420" lon="-111.840980">
        <ele>2089.194</ele>
        <time>2018-12-28T03:07:56Z</time>
      </trkpt>
      <trkpt lat="35.525500" lon="-111.841030">
        <ele>2089.276</ele>
        <time>2018-12-28T03:08:16Z</time>
      </trkpt>
      <trkpt lat="35.525590" lon="-111.841090">
        <ele>2089.480</ele>
        <time>2018-12-28T03:08:36Z</time>
      </trkpt>
      <trkpt lat="35.525680" lon="-111.841150">
        <ele>2089.635</ele>
        <time>2018-12-28T03:08:56Z</time>
      </trkpt>
      <trkpt lat="35.525830" lon="-111.841260">
        <ele>2089.886</ele>
        <time>2018-12-28T03:09:16Z</time>
      </trkpt>
      <trkpt lat="35.525960" lon="-111.841360">
        <ele>2089.814</ele>
        <time>2018-12-28T03:09:36Z</time>
      </trkpt>
      <trkpt lat="35.526090" lon="-111.841470">
        <ele>2089.908</ele>
        <time>2018-12-28T03:09:56Z</time>
      </trkpt>
      <trkpt lat="35.526190" lon="-111.841560">
        <ele>2089.826</ele>
        <time>2018-12-28T03:10:16Z</time>
      </trkpt>
      <trkpt lat="35.526300" lon="-111.841660">
        <ele>2089.434</ele>
        <time>2018-12-28T03:10:36Z</time>
      </trkpt>
      <trkpt lat="35.526360" lon="-111.841720">
        <ele>2089.259</ele>
        <time>2018-12-28T03:10:56Z</time>
      </trkpt>
      <trkpt lat="35.526460" lon="-111.841820">
        <ele>2088.780</ele>
        <time>2018-12-28T03:11:16Z</time>
      </trkpt>
      <trkpt lat="35.526600" lon="-111.841980">
        <ele>2087.935</ele>
        <time>2018-12-28T03:11:36Z</time>
      </trkpt>
      <trkpt lat="35.526780" lon="-111.842190">
        <ele>2086.765</ele>
        <time>2018-12-28T03:11:56Z</time>
      </trkpt>
      <trkpt lat="35.526920" lon="-111.842370">
        <ele>2086.047</ele>
        <time>2018-12-28T03:12:16Z</time>
      </trkpt>
      <trkpt lat="35.527410" lon="-111.843010">
        <ele>2084.041</ele>
        <time>2018-12-28T03:12:36Z</time>
      </trkpt>
      <trkpt lat="35.527770" lon="-111.843490">
        <ele>2081.244</ele>
        <time>2018-12-28T03:12:56Z</time>
      </trkpt>
      <trkpt lat="35.528150" lon="-111.843990">
        <ele>2079.305</ele>
        <time>2018-12-28T03:13:16Z</time>
      </trkpt>
      <trkpt lat="35.528490" lon="-111.844440">
        <ele>2077.415</ele>
        <time>2018-12-28T03:13:36Z</time>
      </trkpt>
      <trkpt lat="35.528720" lon="-111.844740">
        <ele>2076.308</ele>
        <time>2018-12-28T03:13:56Z</time>
      </trkpt>
      <trkpt lat="35.529010" lon="-111.845130">
        <ele>2074.657</ele>
        <time>2018-12-28T03:14:16Z</time>
      </trkpt>
      <trkpt lat="35.529960" lon="-111.846380">
        <ele>2069.945</ele>
        <time>2018-12-28T03:14:36Z</time>
      </trkpt>
      <trkpt lat="35.530090" lon="-111.846540">
        <ele>2069.260</ele>
        <time>2018-12-28T03:14:56Z</time>
      </trkpt>
      <trkpt lat="35.531140" lon="-111.847930">
        <ele>2070.181</ele>
        <time>2018-12-28T03:15:16Z</time>
      </trkpt>
      <trkpt lat="35.531740" lon="-111.848720">
        <ele>2070.956</ele>
        <time>2018-12-28T03:15:36Z</time>
      </trkpt>
      <trkpt lat="35.532000" lon="-111.849070">
        <ele>2071.136</ele>
        <time>2018-12-28T03:15:56Z</time>
      </trkpt>
      <trkpt lat="35.532440" lon="-111.849630">
        <ele>2070.858</ele>
        <time>2018-12-28T03:16:16Z</time>
      </trkpt>
      <trkpt lat="35.532570" lon="-111.849800">
        <ele>2070.172</ele>
        <time>2018-12-28T03:16:36Z</time>
      </trkpt>
      <trkpt lat="35.532670" lon="-111.849920">
        <ele>2069.517</ele>
        <time>2018-12-28T03:16:56Z</time>
      </trkpt>
      <trkpt lat="35.532770" lon="-111.850030">
        <ele>2069.087</ele>
        <time>2018-12-28T03:17:16Z</time>
      </trkpt>
      <trkpt lat="35.532890" lon="-111.850160">
        <ele>2068.215</ele>
        <time>2018-12-28T03:17:36Z</time>
      </trkpt>
      <trkpt lat="35.533010" lon="-111.850270">
        <ele>2067.908</ele>
        <time>2018-12-28T03:17:56Z</time>
      </trkpt>
      <trkpt lat="35.533110" lon="-111.850370">
        <ele>2067.594</ele>
        <time>2018-12-28T03:18:16Z</time>
      </trkpt>
      <trkpt lat="35.533260" lon="-111.850500">
        <ele>2067.262</ele>
        <time>2018-12-28T03:18:36Z</time>
      </trkpt>
      <trkpt lat="35.533410" lon="-111.850620">
        <ele>2067.197</ele>
        <time>2018-12-28T03:18:56Z</time>
      </trkpt>
      <trkpt lat="35.533530" lon="-111.850730">
        <ele>2066.928</ele>
        <time>2018-12-28T03:19:16Z</time>
      </trkpt>
      <trkpt lat="35.533650" lon="-111.850810">
        <ele>2066.853</ele>
        <time>2018-12-28T03:19:36Z</time>
      </trkpt>
      <trkpt lat="35.533730" lon="-111.850870">
        <ele>2066.733</ele>
        <time>2018-12-28T03:19:56Z</time>
      </trkpt>
      <trkpt lat="35.533840" lon="-111.850940">
        <ele>2066.545</ele>
        <time>2018-12-28T03:20:16Z</time>
      </trkpt>
      <trkpt lat="35.533950" lon="-111.851010">
        <ele>2066.129</ele>
        <time>2018-12-28T03:20:36Z</time>
      </trkpt>
      <trkpt lat="35.534090" lon="-111.851080">
        <ele>2065.686</ele>
        <time>2018-12-28T03:20:56Z</time>
      </trkpt>
      <trkpt lat="35.534190" lon="-111.851130">
        <ele>2065.160</ele>
        <time>2018-12-28T03:21:16Z</time>
      </trkpt>
      <trkpt lat="35.534240" lon="-111.851160">
        <ele>2064.826</ele>
        <time>2018-12-28T03:21:36Z</time>
      </trkpt>
      <trkpt lat="35.534300" lon="-111.851190">
        <ele>2064.608</ele>
        <time>2018-12-28T03:21:56Z</time>
      </trkpt>
      <trkpt lat="35.534450" lon="-111.851250">
        <ele>2063.971</ele>
        <time>2018-12-28T03:22:16Z</time>
      </trkpt>
      <trkpt lat="35.534670" lon="-111.851350">
        <ele>2063.029</ele>
        <time>2018-12-28T03:22:36Z</time>
      </trkpt>
      <trkpt lat="35.534880" lon="-111.851420">
        <ele>2062.244</ele>
        <time>2018-12-28T03:22:56Z</time>
      </trkpt>
      <trkpt lat="35.535090" lon="-111.851510">
        <ele>2061.255</ele>
        <time>2018-12-28T03:23:16Z</time>
      </trkpt>
      <trkpt lat="35.535340" lon="-111.851600">
        <ele>2060.090</ele>
        <time>2018-12-28T03:23:36Z</time>
      </trkpt>
      <trkpt lat="35.535570" lon="-111.851690">
        <ele>2058.960</ele>
        <time>2018-12-28T03:23:56Z</time>
      </trkpt>
      <trkpt lat="35.535810" lon="-111.851780">
        <ele>2057.532</ele>
        <time>2018-12-28T03:24:16Z</time>
      </trkpt>
      <trkpt lat="35.536150" lon="-111.851910">
        <ele>2055.096</ele>
        <time>2018-12-28T03:24:36Z</time>
      </trkpt>
      <trkpt lat="35.536540" lon="-111.852070">
        <ele>2052.712</ele>
        <time>2018-12-28T03:24:56Z</time>
      </trkpt>
      <trkpt lat="35.536870" lon="-111.852200">
        <ele>2051.432</ele>
        <time>2018-12-28T03:25:16Z</time>
      </trkpt>
      <trkpt lat="35.537210" lon="-111.852330">
        <ele>2050.505</ele>
        <time>2018-12-28T03:25:36Z</time>
      </trkpt>
      <trkpt lat="35.537840" lon="-111.852570">
        <ele>2048.508</ele>
        <time>2018-12-28T03:25:56Z</time>
      </trkpt>
      <trkpt lat="35.538240" lon="-111.852730">
        <ele>2048.194</ele>
        <time>2018-12-28T03:26:16Z</time>
      </trkpt>
      <trkpt lat="35.538710" lon="-111.852920">
        <ele>2048.292</ele>
        <time>2018-12-28T03:26:36Z</time>
      </trkpt>
      <trkpt lat="35.539130" lon="-111.853080">
        <ele>2048.157</ele>
        <time>2018-12-28T03:26:56Z</time>
      </trkpt>
      <trkpt lat="35.539750" lon="-111.853320">
        <ele>2046.618</ele>
        <time>2018-12-28T03:27:16Z</time>
      </trkpt>
      <trkpt lat="35.540460" lon="-111.853590">
        <ele>2044.443</ele>
        <time>2018-12-28T03:27:36Z</time>
      </trkpt>
      <trkpt lat="35.540900" lon="-111.853760">
        <ele>2043.733</ele>
        <time>2018-12-28T03:27:56Z</time>
      </trkpt>
      <trkpt lat="35.541080" lon="-111.853830">
        <ele>2043.315</ele>
        <time>2018-12-28T03:28:16Z</time>
      </trkpt>
      <trkpt lat="35.541210" lon="-111.853880">
        <ele>2042.939</ele>
        <time>2018-12-28T03:28:36Z</time>
      </trkpt>
      <trkpt lat="35.541330" lon="-111.853930">
        <ele>2042.714</ele>
        <time>2018-12-28T03:28:56Z</time>
      </trkpt>
      <trkpt lat="35.541440" lon="-111.853980">
        <ele>2042.754</ele>
        <time>2018-12-28T03:29:16Z</time>
      </trkpt>
      <trkpt lat="35.541560" lon="-111.854040">
        <ele>2042.709</ele>
        <time>2018-12-28T03:29:36Z</time>
      </trkpt>
      <trkpt lat="35.541680" lon="-111.854100">
        <ele>2042.808</ele>
        <time>2018-12-28T03:29:56Z</time>
      </trkpt>
      <trkpt lat="35.541840" lon="-111.854190">
        <ele>2042.924</ele>
        <time>2018-12-28T03:30:16Z</time>
      </trkpt>
      <trkpt lat="35.541950" lon="-111.854250">
        <ele>2042.892</ele>
        <time>2018-12-28T03:30:36Z</time>
      </trkpt>
      <trkpt lat="35.542070" lon="-111.854330">
        <ele>2042.757</ele>
        <time>2018-12-28T03:30:56Z</time>
      </trkpt>
      <trkpt lat="35.542220" lon="-111.854430">
        <ele>2042.848</ele>
        <time>2018-12-28T03:31:16Z</time>
      </trkpt>
      <trkpt lat="35.542320" lon="-111.854500">
        <ele>2043.023</ele>
        <time>2018-12-28T03:31:36Z</time>
      </trkpt>
      <trkpt lat="35.542410" lon="-111.854570">
        <ele>2043.163</ele>
        <time>2018-12-28T03:31:56Z</time>
      </trkpt>
      <trkpt lat="35.542560" lon="-111.854690">
        <ele>2043.385</ele>
        <time>2018-12-28T03:32:16Z</time>
      </trkpt>
      <trkpt lat="35.542650" lon="-111.854760">
        <ele>2043.359</ele>
        <time>2018-12-28T03:32:36Z</time>
      </trkpt>
      <trkpt lat="35.542740" lon="-111.854850">
        <ele>2043.228</ele>
        <time>2018-12-28T03:32:56Z</time>
      </trkpt>
      <trkpt lat="35.542860" lon="-111.854950">
        <ele>2043.189</ele>
        <time>2018-12-28T03:33:16Z</time>
      </trkpt>
      <trkpt lat="35.542960" lon="-111.855050">
        <ele>2043.217</ele>
        <time>2018-12-28T03:33:36Z</time>
      </trkpt>
      <trkpt lat="35.543070" lon="-111.855180">
        <ele>2043.608</ele>
        <time>2018-12-28T03:33:56Z</time>
      </trkpt>
      <trkpt lat="35.543180" lon="-111.855300">
        <ele>2044.075</ele>
        <time>2018-12-28T03:34:16Z</time>
      </trkpt>
      <trkpt lat="35.543330" lon="-111.855470">
        <ele>2044.143</ele>
        <time>2018-12-28T03:34:36Z</time>
      </trkpt>
      <trkpt lat="35.543500" lon="-111.855690">
        <ele>2044.448</ele>
        <time>2018-12-28T03:34:56Z</time>
      </trkpt>
      <trkpt lat="35.543790" lon="-111.856050">
        <ele>2043.969</ele>
        <time>2018-12-28T03:35:16Z</time>
      </trkpt>
      <trkpt lat="35.544020" lon="-111.856330">
        <ele>2043.144</ele>
        <time>2018-12-28T03:35:36Z</time>
      </trkpt>
      <trkpt lat="35.544260" lon="-111.856640">
        <ele>2043.734</ele>
        <time>2018-12-28T03:35:56Z</time>
      </trkpt>
      <trkpt lat="35.544420" lon="-111.856840">
        <ele>2043.916</ele>
        <time>2018-12-28T03:36:16Z</time>
      </trkpt>
      <trkpt lat="35.544540" lon="-111.856990">
        <ele>2043.580</ele>
        <time>2018-12-28T03:36:36Z</time>
      </trkpt>
      <trkpt lat="35.546060" lon="-111.858890">
        <ele>2040.752</ele>
        <time>2018-12-28T03:36:56Z</time>
      </trkpt>
      <trkpt lat="35.547860" lon="-111.861160">
        <ele>2038.253</ele>
        <time>2018-12-28T03:37:16Z</time>
      </trkpt>
      <trkpt lat="35.548900" lon="-111.862460">
        <ele>2036.308</ele>
        <time>2018-12-28T03:37:36Z</time>
      </trkpt>
      <trkpt lat="35.551200" lon="-111.865360">
        <ele>2036.108</ele>
        <time>2018-12-28T03:37:56Z</time>
      </trkpt>
      <trkpt lat="35.552040" lon="-111.866410">
        <ele>2036.598</ele>
        <time>2018-12-28T03:38:16Z</time>
      </trkpt>
      <trkpt lat="35.552360" lon="-111.866820">
        <ele>2038.326</ele>
        <time>2018-12-28T03:38:36Z</time>
      </trkpt>
      <trkpt lat="35.552830" lon="-111.867410">
        <ele>2040.151</ele>
        <time>2018-12-28T03:38:56Z</time>
      </trkpt>
      <trkpt lat="35.553120" lon="-111.867770">
        <ele>2040.482</ele>
        <time>2018-12-28T03:39:16Z</time>
      </trkpt>
      <trkpt lat="35.553360" lon="-111.868080">
        <ele>2040.087</ele>
        <time>2018-12-28T03:39:36Z</time>
      </trkpt>
      <trkpt lat="35.553560" lon="-111.868340">
        <ele>2039.157</ele>
        <time>2018-12-28T03:39:56Z</time>
      </trkpt>
      <trkpt lat="35.553790" lon="-111.868680">
        <ele>2038.619</ele>
        <time>2018-12-28T03:40:16Z</time>
      </trkpt>
      <trkpt lat="35.553870" lon="-111.868800">
        <ele>2039.023</ele>
        <time>2018-12-28T03:40:36Z</time>
      </trkpt>
      <trkpt lat="35.554000" lon="-111.868990">
        <ele>2039.313</ele>
        <time>2018-12-28T03:40:56Z</time>
      </trkpt>
      <trkpt lat="35.554100" lon="-111.869140">
        <ele>2039.443</ele>
        <time>2018-12-28T03:41:16Z</time>
      </trkpt>
      <trkpt lat="35.554210" lon="-111.869320">
        <ele>2039.307</ele>
        <time>2018-12-28T03:41:36Z</time>
      </trkpt>
      <trkpt lat="35.554540" lon="-111.869860">
        <ele>2038.208</ele>
        <time>2018-12-28T03:41:56Z</time>
      </trkpt>
      <trkpt lat="35.555030" lon="-111.870680">
        <ele>2035.464</ele>
        <time>2018-12-28T03:42:16Z</time>
      </trkpt>
      <trkpt lat="35.556200" lon="-111.872670">
        <ele>2030.342</ele>
        <time>2018-12-28T03:42:36Z</time>
      </trkpt>
      <trkpt lat="35.556590" lon="-111.873340">
        <ele>2030.097</ele>
        <time>2018-12-28T03:42:56Z</time>
      </trkpt>
      <trkpt lat="35.559500" lon="-111.878290">
        <ele>2022.378</ele>
        <time>2018-12-28T03:43:16Z</time>
      </trkpt>
      <trkpt lat="35.559930" lon="-111.879040">
        <ele>2020.233</ele>
        <time>2018-12-28T03:43:36Z</time>
      </trkpt>
      <trkpt lat="35.561630" lon="-111.881910">
        <ele>2015.563</ele>
        <time>2018-12-28T03:43:56Z</time>
      </trkpt>
      <trkpt lat="35.562500" lon="-111.883400">
        <ele>2013.095</ele>
        <time>2018-12-28T03:44:16Z</time>
      </trkpt>
      <trkpt lat="35.563050" lon="-111.884340">
        <ele>2013.999</ele>
        <time>2018-12-28T03:44:36Z</time>
      </trkpt>
      <trkpt lat="35.563330" lon="-111.884820">
        <ele>2014.018</ele>
        <time>2018-12-28T03:44:56Z</time>
      </trkpt>
      <trkpt lat="35.563450" lon="-111.885040">
        <ele>2014.198</ele>
        <time>2018-12-28T03:45:16Z</time>
      </trkpt>
      <trkpt lat="35.563540" lon="-111.885200">
        <ele>2014.017</ele>
        <time>2018-12-28T03:45:36Z</time>
      </trkpt>
      <trkpt lat="35.563670" lon="-111.885470">
        <ele>2013.908</ele>
        <time>2018-12-28T03:45:56Z</time>
      </trkpt>
      <trkpt lat="35.563740" lon="-111.885620">
        <ele>2013.894</ele>
        <time>2018-12-28T03:46:16Z</time>
      </trkpt>
      <trkpt lat="35.563790" lon="-111.885750">
        <ele>2013.742</ele>
        <time>2018-12-28T03:46:36Z</time>
      </trkpt>
      <trkpt lat="35.563830" lon="-111.885870">
        <ele>2013.697</ele>
        <time>2018-12-28T03:46:56Z</time>
      </trkpt>
      <trkpt lat="35.563880" lon="-111.886010">
        <ele>2013.668</ele>
        <time>2018-12-28T03:47:16Z</time>
      </trkpt>
      <trkpt lat="35.563930" lon="-111.886150">
        <ele>2013.523</ele>
        <time>2018-12-28T03:47:36Z</time>
      </trkpt>
      <trkpt lat="35.563970" lon="-111.886250">
        <ele>2013.483</ele>
        <time>2018-12-28T03:47:56Z</time>
      </trkpt>
      <trkpt lat="35.564000" lon="-111.886360">
        <ele>2013.415</ele>
        <time>2018-12-28T03:48:16Z</time>
      </trkpt>
      <trkpt lat="35.564050" lon="-111.886540">
        <ele>2013.469</ele>
        <time>2018-12-28T03:48:36Z</time>
      </trkpt>
      <trkpt lat="35.564100" lon="-111.886720">
        <ele>2013.563</ele>
        <time>2018-12-28T03:48:56Z</time>
      </trkpt>
      <trkpt lat="35.564140" lon="-111.886910">
        <ele>2013.744</ele>
        <time>2018-12-28T03:49:16Z</time>
      </trkpt>
      <trkpt lat="35.564180" lon="-111.887110">
        <ele>2014.018</ele>
        <time>2018-12-28T03:49:36Z</time>
      </trkpt>
      <trkpt lat="35.564220" lon="-111.887320">
        <ele>2014.208</ele>
        <time>2018-12-28T03:49:56Z</time>
      </trkpt>
      <trkpt lat="35.564260" lon="-111.887590">
        <ele>2014.219</ele>
        <time>2018-12-28T03:50:16Z</time>
      </trkpt>
      <trkpt lat="35.564280" lon="-111.887750">
        <ele>2014.247</ele>
        <time>2018-12-28T03:50:36Z</time>
      </trkpt>
      <trkpt lat="35.564290" lon="-111.887900">
        <ele>2014.242</ele>
        <time>2018-12-28T03:50:56Z</time>
      </trkpt>
      <trkpt lat="35.564300" lon="-111.888090">
        <ele>2014.293</ele>
        <time>2018-12-28T03:51:16Z</time>
      </trkpt>
      <trkpt lat="35.564310" lon="-111.888300">
        <ele>2014.288</ele>
        <time>2018-12-28T03:51:36Z</time>
      </trkpt>
      <trkpt lat="35.564310" lon="-111.888540">
        <ele>2014.388</ele>
        <time>2018-12-28T03:51:56Z</time>
      </trkpt>
      <trkpt lat="35.564310" lon="-111.888890">
        <ele>2014.690</ele>
        <time>2018-12-28T03:52:16Z</time>
      </trkpt>
      <trkpt lat="35.564270" lon="-111.890130">
        <ele>2015.824</ele>
        <time>2018-12-28T03:52:36Z</time>
      </trkpt>
      <trkpt lat="35.564190" lon="-111.892510">
        <ele>2015.718</ele>
        <time>2018-12-28T03:52:56Z</time>
      </trkpt>
      <trkpt lat="35.564130" lon="-111.894590">
        <ele>2012.698</ele>
        <time>2018-12-28T03:53:16Z</time>
      </trkpt>
      <trkpt lat="35.564030" lon="-111.897640">
        <ele>2007.217</ele>
        <time>2018-12-28T03:53:36Z</time>
      </trkpt>
      <trkpt lat="35.563980" lon="-111.899010">
        <ele>2006.708</ele>
        <time>2018-12-28T03:53:56Z</time>
      </trkpt>
      <trkpt lat="35.563860" lon="-111.902980">
        <ele>2006.584</ele>
        <time>2018-12-28T03:54:16Z</time>
      </trkpt>
      <trkpt lat="35.563840" lon="-111.903470">
        <ele>2007.462</ele>
        <time>2018-12-28T03:54:36Z</time>
      </trkpt>
      <trkpt lat="35.563820" lon="-111.904110">
        <ele>2008.697</ele>
        <time>2018-12-28T03:54:56Z</time>
      </trkpt>
      <trkpt lat="35.563810" lon="-111.904400">
        <ele>2009.118</ele>
        <time>2018-12-28T03:55:16Z</time>
      </trkpt>
      <trkpt lat="35.563730" lon="-111.907140">
        <ele>2008.893</ele>
        <time>2018-12-28T03:55:36Z</time>
      </trkpt>
      <trkpt lat="35.563720" lon="-111.907300">
        <ele>2008.593</ele>
        <time>2018-12-28T03:55:56Z</time>
      </trkpt>
      <trkpt lat="35.563700" lon="-111.908120">
        <ele>2006.825</ele>
        <time>2018-12-28T03:56:16Z</time>
      </trkpt>
      <trkpt lat="35.563700" lon="-111.908370">
        <ele>2007.259</ele>
        <time>2018-12-28T03:56:36Z</time>
      </trkpt>
      <trkpt lat="35.563710" lon="-111.908620">
        <ele>2008.296</ele>
        <time>2018-12-28T03:56:56Z</time>
      </trkpt>
      <trkpt lat="35.563730" lon="-111.908800">
        <ele>2009.031</ele>
        <time>2018-12-28T03:57:16Z</time>
      </trkpt>
      <trkpt lat="35.563750" lon="-111.909030">
        <ele>2010.024</ele>
        <time>2018-12-28T03:57:36Z</time>
      </trkpt>
      <trkpt lat="35.563780" lon="-111.909280">
        <ele>2011.108</ele>
        <time>2018-12-28T03:57:56Z</time>
      </trkpt>
      <trkpt lat="35.563810" lon="-111.909480">
        <ele>2012.052</ele>
        <time>2018-12-28T03:58:16Z</time>
      </trkpt>
      <trkpt lat="35.563850" lon="-111.909680">
        <ele>2012.510</ele>
        <time>2018-12-28T03:58:36Z</time>
      </trkpt>
      <trkpt lat="35.563880" lon="-111.909820">
        <ele>2012.855</ele>
        <time>2018-12-28T03:58:56Z</time>
      </trkpt>
      <trkpt lat="35.563910" lon="-111.909940">
        <ele>2013.196</ele>
        <time>2018-12-28T03:59:16Z</time>
      </trkpt>
      <trkpt lat="35.563960" lon="-111.910160">
        <ele>2013.871</ele>
        <time>2018-12-28T03:59:36Z</time>
      </trkpt>
      <trkpt lat="35.564020" lon="-111.910370">
        <ele>2014.381</ele>
        <time>2018-12-28T03:59:56Z</time>
      </trkpt>
      <trkpt lat="35.564080" lon="-111.910550">
        <ele>2014.723</ele>
        <time>2018-12-28T04:00:16Z</time>
      </trkpt>
      <trkpt lat="35.564140" lon="-111.910740">
        <ele>2015.057</ele>
        <time>2018-12-28T04:00:36Z</time>
      </trkpt>
      <trkpt lat="35.564190" lon="-111.910870">
        <ele>2015.242</ele>
        <time>2018-12-28T04:00:56Z</time>
      </trkpt>
      <trkpt lat="35.564250" lon="-111.911010">
        <ele>2015.322</ele>
        <time>2018-12-28T04:01:16Z</time>
      </trkpt>
      <trkpt lat="35.564300" lon="-111.911140">
        <ele>2015.514</ele>
        <time>2018-12-28T04:01:36Z</time>
      </trkpt>
      <trkpt lat="35.564340" lon="-111.911220">
        <ele>2015.508</ele>
        <time>2018-12-28T04:01:56Z</time>
      </trkpt>
      <trkpt lat="35.564370" lon="-111.911300">
        <ele>2015.637</ele>
        <time>2018-12-28T04:02:16Z</time>
      </trkpt>
      <trkpt lat="35.564510" lon="-111.911580">
        <ele>2015.615</ele>
        <time>2018-12-28T04:02:36Z</time>
      </trkpt>
      <trkpt lat="35.564650" lon="-111.911860">
        <ele>2015.660</ele>
        <time>2018-12-28T04:02:56Z</time>
      </trkpt>
      <trkpt lat="35.565040" lon="-111.912620">
        <ele>2015.181</ele>
        <time>2018-12-28T04:03:16Z</time>
      </trkpt>
      <trkpt lat="35.565420" lon="-111.913390">
        <ele>2013.966</ele>
        <time>2018-12-28T04:03:36Z</time>
      </trkpt>
      <trkpt lat="35.566010" lon="-111.914530">
        <ele>2010.926</ele>
        <time>2018-12-28T04:03:56Z</time>
      </trkpt>
      <trkpt lat="35.566300" lon="-111.915110">
        <ele>2008.978</ele>
        <time>2018-12-28T04:04:16Z</time>
      </trkpt>
      <trkpt lat="35.566540" lon="-111.915580">
        <ele>2007.722</ele>
        <time>2018-12-28T04:04:36Z</time>
      </trkpt>
      <trkpt lat="35.567280" lon="-111.917040">
        <ele>2005.661</ele>
        <time>2018-12-28T04:04:56Z</time>
      </trkpt>
      <trkpt lat="35.568880" lon="-111.920200">
        <ele>2000.221</ele>
        <time>2018-12-28T04:05:16Z</time>
      </trkpt>
      <trkpt lat="35.570070" lon="-111.922550">
        <ele>1995.713</ele>
        <time>2018-12-28T04:05:36Z</time>
      </trkpt>
      <trkpt lat="35.571090" lon="-111.924550">
        <ele>1996.208</ele>
        <time>2018-12-28T04:05:56Z</time>
      </trkpt>
      <trkpt lat="35.574190" lon="-111.930660">
        <ele>1998.629</ele>
        <time>2018-12-28T04:06:16Z</time>
      </trkpt>
      <trkpt lat="35.575210" lon="-111.932670">
        <ele>1999.217</ele>
        <time>2018-12-28T04:06:36Z</time>
      </trkpt>
      <trkpt lat="35.575300" lon="-111.932850">
        <ele>1999.332</ele>
        <time>2018-12-28T04:06:56Z</time>
      </trkpt>
      <trkpt lat="35.576510" lon="-111.935220">
        <ele>1998.413</ele>
        <time>2018-12-28T04:07:16Z</time>
      </trkpt>
      <trkpt lat="35.577080" lon="-111.936350">
        <ele>1996.758</ele>
        <time>2018-12-28T04:07:36Z</time>
      </trkpt>
      <trkpt lat="35.577280" lon="-111.936750">
        <ele>1996.168</ele>
        <time>2018-12-28T04:07:56Z</time>
      </trkpt>
      <trkpt lat="35.577360" lon="-111.936890">
        <ele>1995.940</ele>
        <time>2018-12-28T04:08:16Z</time>
      </trkpt>
      <trkpt lat="35.577430" lon="-111.937050">
        <ele>1995.734</ele>
        <time>2018-12-28T04:08:36Z</time>
      </trkpt>
      <trkpt lat="35.577490" lon="-111.937200">
        <ele>1995.577</ele>
        <time>2018-12-28T04:08:56Z</time>
      </trkpt>
      <trkpt lat="35.577530" lon="-111.937280">
        <ele>1995.461</ele>
        <time>2018-12-28T04:09:16Z</time>
      </trkpt>
      <trkpt lat="35.577560" lon="-111.937350">
        <ele>1995.327</ele>
        <time>2018-12-28T04:09:36Z</time>
      </trkpt>
      <trkpt lat="35.577600" lon="-111.937450">
        <ele>1995.208</ele>
        <time>2018-12-28T04:09:56Z</time>
      </trkpt>
      <trkpt lat="35.577630" lon="-111.937520">
        <ele>1995.130</ele>
        <time>2018-12-28T04:10:16Z</time>
      </trkpt>
      <trkpt lat="35.577650" lon="-111.937590">
        <ele>1995.158</ele>
        <time>2018-12-28T04:10:36Z</time>
      </trkpt>
      <trkpt lat="35.577740" lon="-111.937830">
        <ele>1994.933</ele>
        <time>2018-12-28T04:10:56Z</time>
      </trkpt>
      <trkpt lat="35.577780" lon="-111.937940">
        <ele>1994.864</ele>
        <time>2018-12-28T04:11:16Z</time>
      </trkpt>
      <trkpt lat="35.577800" lon="-111.938000">
        <ele>1994.769</ele>
        <time>2018-12-28T04:11:36Z</time>
      </trkpt>
      <trkpt lat="35.577830" lon="-111.938090">
        <ele>1994.759</ele>
        <time>2018-12-28T04:11:56Z</time>
      </trkpt>
      <trkpt lat="35.577870" lon="-111.938180">
        <ele>1994.671</ele>
        <time>2018-12-28T04:12:16Z</time>
      </trkpt>
      <trkpt lat="35.577920" lon="-111.938350">
        <ele>1994.425</ele>
        <time>2018-12-28T04:12:36Z</time>
      </trkpt>
      <trkpt lat="35.577950" lon="-111.938450">
        <ele>1994.456</ele>
        <time>2018-12-28T04:12:56Z</time>
      </trkpt>
      <trkpt lat="35.577970" lon="-111.938510">
        <ele>1994.459</ele>
        <time>2018-12-28T04:13:16Z</time>
      </trkpt>
      <trkpt lat="35.578000" lon="-111.938610">
        <ele>1994.414</ele>
        <time>2018-12-28T04:13:36Z</time>
      </trkpt>
      <trkpt lat="35.578050" lon="-111.938790">
        <ele>1994.408</ele>
        <time>2018-12-28T04:13:56Z</time>
      </trkpt>
      <trkpt lat="35.578060" lon="-111.938840">
        <ele>1994.318</ele>
        <time>2018-12-28T04:14:16Z</time>
      </trkpt>
      <trkpt lat="35.578080" lon="-111.938900">
        <ele>1994.386</ele>
        <time>2018-12-28T04:14:36Z</time>
      </trkpt>
      <trkpt lat="35.578090" lon="-111.938970">
        <ele>1994.331</ele>
        <time>2018-12-28T04:14:56Z</time>
      </trkpt>
      <trkpt lat="35.578110" lon="-111.939040">
        <ele>1994.382</ele>
        <time>2018-12-28T04:15:16Z</time>
      </trkpt>
      <trkpt lat="35.578150" lon="-111.939210">
        <ele>1994.147</ele>
        <time>2018-12-28T04:15:36Z</time>
      </trkpt>
      <trkpt lat="35.578190" lon="-111.939380">
        <ele>1994.087</ele>
        <time>2018-12-28T04:15:56Z</time>
      </trkpt>
      <trkpt lat="35.578200" lon="-111.939460">
        <ele>1994.069</ele>
        <time>2018-12-28T04:16:16Z</time>
      </trkpt>
      <trkpt lat="35.578220" lon="-111.939580">
        <ele>1994.073</ele>
        <time>2018-12-28T04:16:36Z</time>
      </trkpt>
      <trkpt lat="35.578230" lon="-111.939640">
        <ele>1993.913</ele>
        <time>2018-12-28T04:16:56Z</time>
      </trkpt>
      <trkpt lat="35.578250" lon="-111.939710">
        <ele>1993.943</ele>
        <time>2018-12-28T04:17:16Z</time>
      </trkpt>
      <trkpt lat="35.578280" lon="-111.939890">
        <ele>1993.907</ele>
        <time>2018-12-28T04:17:36Z</time>
      </trkpt>
      <trkpt lat="35.578330" lon="-111.940240">
        <ele>1993.808</ele>
        <time>2018-12-28T04:17:56Z</time>
      </trkpt>
      <trkpt lat="35.578390" lon="-111.940680">
        <ele>1993.824</ele>
        <time>2018-12-28T04:18:16Z</time>
      </trkpt>
      <trkpt lat="35.578450" lon="-111.941080">
        <ele>1993.662</ele>
        <time>2018-12-28T04:18:36Z</time>
      </trkpt>
      <trkpt lat="35.578510" lon="-111.941490">
        <ele>1993.567</ele>
        <time>2018-12-28T04:18:56Z</time>
      </trkpt>
      <trkpt lat="35.578580" lon="-111.942020">
        <ele>1993.328</ele>
        <time>2018-12-28T04:19:16Z</time>
      </trkpt>
      <trkpt lat="35.578640" lon="-111.942400">
        <ele>1993.243</ele>
        <time>2018-12-28T04:19:36Z</time>
      </trkpt>
      <trkpt lat="35.578690" lon="-111.942800">
        <ele>1993.133</ele>
        <time>2018-12-28T04:19:56Z</time>
      </trkpt>
      <trkpt lat="35.578750" lon="-111.943210">
        <ele>1992.955</ele>
        <time>2018-12-28T04:20:16Z</time>
      </trkpt>
      <trkpt lat="35.578810" lon="-111.943610">
        <ele>1992.679</ele>
        <time>2018-12-28T04:20:36Z</time>
      </trkpt>
      <trkpt lat="35.578840" lon="-111.943850">
        <ele>1992.395</ele>
        <time>2018-12-28T04:20:56Z</time>
      </trkpt>
      <trkpt lat="35.578880" lon="-111.944120">
        <ele>1992.049</ele>
        <time>2018-12-28T04:21:16Z</time>
      </trkpt>
      <trkpt lat="35.578920" lon="-111.944400">
        <ele>1991.723</ele>
        <time>2018-12-28T04:21:36Z</time>
      </trkpt>
      <trkpt lat="35.579000" lon="-111.944930">
        <ele>1990.808</ele>
        <time>2018-12-28T04:21:56Z</time>
      </trkpt>
      <trkpt lat="35.579110" lon="-111.945720">
        <ele>1989.742</ele>
        <time>2018-12-28T04:22:16Z</time>
      </trkpt>
      <trkpt lat="35.579200" lon="-111.946400">
        <ele>1989.090</ele>
        <time>2018-12-28T04:22:36Z</time>
      </trkpt>
      <trkpt lat="35.579260" lon="-111.946770">
        <ele>1988.585</ele>
        <time>2018-12-28T04:22:56Z</time>
      </trkpt>
      <trkpt lat="35.579310" lon="-111.947180">
        <ele>1988.276</ele>
        <time>2018-12-28T04:23:16Z</time>
      </trkpt>
      <trkpt lat="35.579370" lon="-111.947580">
        <ele>1987.681</ele>
        <time>2018-12-28T04:23:36Z</time>
      </trkpt>
      <trkpt lat="35.579500" lon="-111.948450">
        <ele>1986.181</ele>
        <time>2018-12-28T04:23:56Z</time>
      </trkpt>
      <trkpt lat="35.579560" lon="-111.948900">
        <ele>1985.363</ele>
        <time>2018-12-28T04:24:16Z</time>
      </trkpt>
      <trkpt lat="35.579660" lon="-111.949590">
        <ele>1984.247</ele>
        <time>2018-12-28T04:24:36Z</time>
      </trkpt>
      <trkpt lat="35.579690" lon="-111.949830">
        <ele>1983.848</ele>
        <time>2018-12-28T04:24:56Z</time>
      </trkpt>
      <trkpt lat="35.579710" lon="-111.949970">
        <ele>1983.661</ele>
        <time>2018-12-28T04:25:16Z</time>
      </trkpt>
      <trkpt lat="35.579750" lon="-111.950250">
        <ele>1983.317</ele>
        <time>2018-12-28T04:25:36Z</time>
      </trkpt>
      <trkpt lat="35.579810" lon="-111.950640">
        <ele>1982.908</ele>
        <time>2018-12-28T04:25:56Z</time>
      </trkpt>
      <trkpt lat="35.579860" lon="-111.951040">
        <ele>1982.597</ele>
        <time>2018-12-28T04:26:16Z</time>
      </trkpt>
      <trkpt lat="35.579920" lon="-111.951440">
        <ele>1982.165</ele>
        <time>2018-12-28T04:26:36Z</time>
      </trkpt>
      <trkpt lat="35.579970" lon="-111.951830">
        <ele>1981.070</ele>
        <time>2018-12-28T04:26:56Z</time>
      </trkpt>
      <trkpt lat="35.580010" lon="-111.952070">
        <ele>1980.361</ele>
        <time>2018-12-28T04:27:16Z</time>
      </trkpt>
      <trkpt lat="35.580030" lon="-111.952210">
        <ele>1979.956</ele>
        <time>2018-12-28T04:27:36Z</time>
      </trkpt>
      <trkpt lat="35.580050" lon="-111.952370">
        <ele>1979.426</ele>
        <time>2018-12-28T04:27:56Z</time>
      </trkpt>
      <trkpt lat="35.580100" lon="-111.952740">
        <ele>1978.548</ele>
        <time>2018-12-28T04:28:16Z</time>
      </trkpt>
      <trkpt lat="35.580140" lon="-111.953010">
        <ele>1977.952</ele>
        <time>2018-12-28T04:28:36Z</time>
      </trkpt>
      <trkpt lat="35.580160" lon="-111.953160">
        <ele>1977.688</ele>
        <time>2018-12-28T04:28:56Z</time>
      </trkpt>
      <trkpt lat="35.580200" lon="-111.953400">
        <ele>1977.224</ele>
        <time>2018-12-28T04:29:16Z</time>
      </trkpt>
      <trkpt lat="35.580220" lon="-111.953540">
        <ele>1976.926</ele>
        <time>2018-12-28T04:29:36Z</time>
      </trkpt>
      <trkpt lat="35.580280" lon="-111.953960">
        <ele>1976.208</ele>
        <time>2018-12-28T04:29:56Z</time>
      </trkpt>
      <trkpt lat="35.580330" lon="-111.954340">
        <ele>1975.941</ele>
        <time>2018-12-28T04:30:16Z</time>
      </trkpt>
      <trkpt lat="35.580410" lon="-111.954870">
        <ele>1974.769</ele>
        <time>2018-12-28T04:30:36Z</time>
      </trkpt>
      <trkpt lat="35.580460" lon="-111.955270">
        <ele>1973.624</ele>
        <time>2018-12-28T04:30:56Z</time>
      </trkpt>
      <trkpt lat="35.580480" lon="-111.955430">
        <ele>1973.265</ele>
        <time>2018-12-28T04:31:16Z</time>
      </trkpt>
      <trkpt lat="35.580520" lon="-111.955670">
        <ele>1972.660</ele>
        <time>2018-12-28T04:31:36Z</time>
      </trkpt>
      <trkpt lat="35.580590" lon="-111.956210">
        <ele>1971.580</ele>
        <time>2018-12-28T04:31:56Z</time>
      </trkpt>
      <trkpt lat="35.580650" lon="-111.956620">
        <ele>1970.682</ele>
        <time>2018-12-28T04:32:16Z</time>
      </trkpt>
      <trkpt lat="35.580700" lon="-111.956990">
        <ele>1970.236</ele>
        <time>2018-12-28T04:32:36Z</time>
      </trkpt>
      <trkpt lat="35.580750" lon="-111.957290">
        <ele>1969.818</ele>
        <time>2018-12-28T04:32:56Z</time>
      </trkpt>
      <trkpt lat="35.580770" lon="-111.957430">
        <ele>1969.598</ele>
        <time>2018-12-28T04:33:16Z</time>
      </trkpt>
      <trkpt lat="35.580780" lon="-111.957540">
        <ele>1969.217</ele>
        <time>2018-12-28T04:33:36Z</time>
      </trkpt>
      <trkpt lat="35.580800" lon="-111.957670">
        <ele>1968.808</ele>
        <time>2018-12-28T04:33:56Z</time>
      </trkpt>
      <trkpt lat="35.580840" lon="-111.957970">
        <ele>1968.114</ele>
        <time>2018-12-28T04:34:16Z</time>
      </trkpt>
      <trkpt lat="35.580880" lon="-111.958210">
        <ele>1967.652</ele>
        <time>2018-12-28T04:34:36Z</time>
      </trkpt>
      <trkpt lat="35.580920" lon="-111.958490">
        <ele>1967.087</ele>
        <time>2018-12-28T04:34:56Z</time>
      </trkpt>
      <trkpt lat="35.580950" lon="-111.958710">
        <ele>1966.518</ele>
        <time>2018-12-28T04:35:16Z</time>
      </trkpt>
      <trkpt lat="35.580990" lon="-111.959000">
        <ele>1965.933</ele>
        <time>2018-12-28T04:35:36Z</time>
      </trkpt>
      <trkpt lat="35.581160" lon="-111.960190">
        <ele>1963.733</ele>
        <time>2018-12-28T04:35:56Z</time>
      </trkpt>
      <trkpt lat="35.581780" lon="-111.964540">
        <ele>1950.535</ele>
        <time>2018-12-28T04:36:16Z</time>
      </trkpt>
      <trkpt lat="35.581820" lon="-111.964890">
        <ele>1950.469</ele>
        <time>2018-12-28T04:36:36Z</time>
      </trkpt>
      <trkpt lat="35.581900" lon="-111.965420">
        <ele>1950.078</ele>
        <time>2018-12-28T04:36:56Z</time>
      </trkpt>
      <trkpt lat="35.581930" lon="-111.965670">
        <ele>1949.833</ele>
        <time>2018-12-28T04:37:16Z</time>
      </trkpt>
      <trkpt lat="35.581970" lon="-111.965940">
        <ele>1949.726</ele>
        <time>2018-12-28T04:37:36Z</time>
      </trkpt>
      <trkpt lat="35.582020" lon="-111.966230">
        <ele>1949.408</ele>
        <time>2018-12-28T04:37:56Z</time>
      </trkpt>
      <trkpt lat="35.582050" lon="-111.966470">
        <ele>1949.220</ele>
        <time>2018-12-28T04:38:16Z</time>
      </trkpt>
      <trkpt lat="35.582090" lon="-111.966730">
        <ele>1949.038</ele>
        <time>2018-12-28T04:38:36Z</time>
      </trkpt>
      <trkpt lat="35.582120" lon="-111.967000">
        <ele>1948.873</ele>
        <time>2018-12-28T04:38:56Z</time>
      </trkpt>
      <trkpt lat="35.582150" lon="-111.967160">
        <ele>1948.624</ele>
        <time>2018-12-28T04:39:16Z</time>
      </trkpt>
      <trkpt lat="35.582180" lon="-111.967400">
        <ele>1948.479</ele>
        <time>2018-12-28T04:39:36Z</time>
      </trkpt>
      <trkpt lat="35.582200" lon="-111.967550">
        <ele>1948.369</ele>
        <time>2018-12-28T04:39:56Z</time>
      </trkpt>
      <trkpt lat="35.582240" lon="-111.967800">
        <ele>1948.021</ele>
        <time>2018-12-28T04:40:16Z</time>
      </trkpt>
      <trkpt lat="35.582280" lon="-111.968090">
        <ele>1947.725</ele>
        <time>2018-12-28T04:40:36Z</time>
      </trkpt>
      <trkpt lat="35.582290" lon="-111.968200">
        <ele>1947.627</ele>
        <time>2018-12-28T04:40:56Z</time>
      </trkpt>
      <trkpt lat="35.582330" lon="-111.968470">
        <ele>1947.368</ele>
        <time>2018-12-28T04:41:16Z</time>
      </trkpt>
      <trkpt lat="35.582370" lon="-111.968730">
        <ele>1947.014</ele>
        <time>2018-12-28T04:41:36Z</time>
      </trkpt>
      <trkpt lat="35.582410" lon="-111.969030">
        <ele>1946.608</ele>
        <time>2018-12-28T04:41:56Z</time>
      </trkpt>
      <trkpt lat="35.582450" lon="-111.969300">
        <ele>1946.235</ele>
        <time>2018-12-28T04:42:16Z</time>
      </trkpt>
      <trkpt lat="35.582500" lon="-111.969630">
        <ele>1945.753</ele>
        <time>2018-12-28T04:42:36Z</time>
      </trkpt>
      <trkpt lat="35.582520" lon="-111.969760">
        <ele>1945.698</ele>
        <time>2018-12-28T04:42:56Z</time>
      </trkpt>
      <trkpt lat="35.582530" lon="-111.969870">
        <ele>1945.689</ele>
        <time>2018-12-28T04:43:16Z</time>
      </trkpt>
      <trkpt lat="35.582550" lon="-111.970030">
        <ele>1945.564</ele>
        <time>2018-12-28T04:43:36Z</time>
      </trkpt>
      <trkpt lat="35.582580" lon="-111.970210">
        <ele>1945.464</ele>
        <time>2018-12-28T04:43:56Z</time>
      </trkpt>
      <trkpt lat="35.582610" lon="-111.970420">
        <ele>1945.136</ele>
        <time>2018-12-28T04:44:16Z</time>
      </trkpt>
      <trkpt lat="35.582640" lon="-111.970640">
        <ele>1944.820</ele>
        <time>2018-12-28T04:44:36Z</time>
      </trkpt>
      <trkpt lat="35.582660" lon="-111.970770">
        <ele>1944.613</ele>
        <time>2018-12-28T04:44:56Z</time>
      </trkpt>
      <trkpt lat="35.582690" lon="-111.970970">
        <ele>1944.343</ele>
        <time>2018-12-28T04:45:16Z</time>
      </trkpt>
      <trkpt lat="35.582720" lon="-111.971230">
        <ele>1944.107</ele>
        <time>2018-12-28T04:45:36Z</time>
      </trkpt>
      <trkpt lat="35.582740" lon="-111.971340">
        <ele>1943.908</ele>
        <time>2018-12-28T04:45:56Z</time>
      </trkpt>
      <trkpt lat="35.582760" lon="-111.971510">
        <ele>1943.744</ele>
        <time>2018-12-28T04:46:16Z</time>
      </trkpt>
      <trkpt lat="35.582790" lon="-111.971690">
        <ele>1943.462</ele>
        <time>2018-12-28T04:46:36Z</time>
      </trkpt>
      <trkpt lat="35.582810" lon="-111.971800">
        <ele>1943.237</ele>
        <time>2018-12-28T04:46:56Z</time>
      </trkpt>
      <trkpt lat="35.582830" lon="-111.971920">
        <ele>1943.048</ele>
        <time>2018-12-28T04:47:16Z</time>
      </trkpt>
      <trkpt lat="35.582850" lon="-111.972000">
        <ele>1942.833</ele>
        <time>2018-12-28T04:47:36Z</time>
      </trkpt>
      <trkpt lat="35.582860" lon="-111.972070">
        <ele>1942.723</ele>
        <time>2018-12-28T04:47:56Z</time>
      </trkpt>
      <trkpt lat="35.582870" lon="-111.972130">
        <ele>1942.645</ele>
        <time>2018-12-28T04:48:16Z</time>
      </trkpt>
      <trkpt lat="35.582890" lon="-111.972200">
        <ele>1942.429</ele>
        <time>2018-12-28T04:48:36Z</time>
      </trkpt>
      <trkpt lat="35.582910" lon="-111.972320">
        <ele>1942.289</ele>
        <time>2018-12-28T04:48:56Z</time>
      </trkpt>
      <trkpt lat="35.582930" lon="-111.972390">
        <ele>1942.006</ele>
        <time>2018-12-28T04:49:16Z</time>
      </trkpt>
      <trkpt lat="35.582950" lon="-111.972480">
        <ele>1941.926</ele>
        <time>2018-12-28T04:49:36Z</time>
      </trkpt>
      <trkpt lat="35.582980" lon="-111.972590">
        <ele>1941.608</ele>
        <time>2018-12-28T04:49:56Z</time>
      </trkpt>
      <trkpt lat="35.583010" lon="-111.972730">
        <ele>1941.371</ele>
        <time>2018-12-28T04:50:16Z</time>
      </trkpt>
      <trkpt lat="35.583050" lon="-111.972870">
        <ele>1941.029</ele>
        <time>2018-12-28T04:50:36Z</time>
      </trkpt>
      <trkpt lat="35.583080" lon="-111.972970">
        <ele>1940.864</ele>
        <time>2018-12-28T04:50:56Z</time>
      </trkpt>
      <trkpt lat="35.583110" lon="-111.973090">
        <ele>1940.695</ele>
        <time>2018-12-28T04:51:16Z</time>
      </trkpt>
      <trkpt lat="35.583140" lon="-111.973180">
        <ele>1940.420</ele>
        <time>2018-12-28T04:51:36Z</time>
      </trkpt>
      <trkpt lat="35.583170" lon="-111.973300">
        <ele>1940.250</ele>
        <time>2018-12-28T04:51:56Z</time>
      </trkpt>
      <trkpt lat="35.583200" lon="-111.973390">
        <ele>1940.052</ele>
        <time>2018-12-28T04:52:16Z</time>
      </trkpt>
      <trkpt lat="35.583230" lon="-111.973460">
        <ele>1939.966</ele>
        <time>2018-12-28T04:52:36Z</time>
      </trkpt>
      <trkpt lat="35.583250" lon="-111.973540">
        <ele>1939.871</ele>
        <time>2018-12-28T04:52:56Z</time>
      </trkpt>
      <trkpt lat="35.583270" lon="-111.973600">
        <ele>1939.741</ele>
        <time>2018-12-28T04:53:16Z</time>
      </trkpt>
      <trkpt lat="35.583310" lon="-111.973700">
        <ele>1939.515</ele>
        <time>2018-12-28T04:53:36Z</time>
      </trkpt>
      <trkpt lat="35.583360" lon="-111.973840">
        <ele>1939.408</ele>
        <time>2018-12-28T04:53:56Z</time>
      </trkpt>
      <trkpt lat="35.583410" lon="-111.973970">
        <ele>1939.270</ele>
        <time>2018-12-28T04:54:16Z</time>
      </trkpt>
      <trkpt lat="35.583460" lon="-111.974090">
        <ele>1939.018</ele>
        <time>2018-12-28T04:54:36Z</time>
      </trkpt>
      <trkpt lat="35.583520" lon="-111.974230">
        <ele>1938.783</ele>
        <time>2018-12-28T04:54:56Z</time>
      </trkpt>
      <trkpt lat="35.583580" lon="-111.974350">
        <ele>1938.544</ele>
        <time>2018-12-28T04:55:16Z</time>
      </trkpt>
      <trkpt lat="35.583630" lon="-111.974480">
        <ele>1938.449</ele>
        <time>2018-12-28T04:55:36Z</time>
      </trkpt>
      <trkpt lat="35.583690" lon="-111.974610">
        <ele>1938.219</ele>
        <time>2018-12-28T04:55:56Z</time>
      </trkpt>
      <trkpt lat="35.583750" lon="-111.974750">
        <ele>1937.971</ele>
        <time>2018-12-28T04:56:16Z</time>
      </trkpt>
      <trkpt lat="35.583800" lon="-111.974870">
        <ele>1937.815</ele>
        <time>2018-12-28T04:56:36Z</time>
      </trkpt>
      <trkpt lat="35.583870" lon="-111.975040">
        <ele>1937.586</ele>
        <time>2018-12-28T04:56:56Z</time>
      </trkpt>
      <trkpt lat="35.583920" lon="-111.975160">
        <ele>1937.260</ele>
        <time>2018-12-28T04:57:16Z</time>
      </trkpt>
      <trkpt lat="35.583980" lon="-111.975290">
        <ele>1937.026</ele>
        <time>2018-12-28T04:57:36Z</time>
      </trkpt>
      <trkpt lat="35.584040" lon="-111.975440">
        <ele>1936.608</ele>
        <time>2018-12-28T04:57:56Z</time>
      </trkpt>
      <trkpt lat="35.584160" lon="-111.975710">
        <ele>1936.011</ele>
        <time>2018-12-28T04:58:16Z</time>
      </trkpt>
      <trkpt lat="35.584260" lon="-111.975940">
        <ele>1935.489</ele>
        <time>2018-12-28T04:58:36Z</time>
      </trkpt>
      <trkpt lat="35.584330" lon="-111.976100">
        <ele>1935.084</ele>
        <time>2018-12-28T04:58:56Z</time>
      </trkpt>
      <trkpt lat="35.584370" lon="-111.976200">
        <ele>1934.815</ele>
        <time>2018-12-28T04:59:16Z</time>
      </trkpt>
      <trkpt lat="35.584420" lon="-111.976310">
        <ele>1934.630</ele>
        <time>2018-12-28T04:59:36Z</time>
      </trkpt>
      <trkpt lat="35.584490" lon="-111.976460">
        <ele>1934.440</ele>
        <time>2018-12-28T04:59:56Z</time>
      </trkpt>
      <trkpt lat="35.584540" lon="-111.976590">
        <ele>1934.152</ele>
        <time>2018-12-28T05:00:16Z</time>
      </trkpt>
      <trkpt lat="35.584590" lon="-111.976700">
        <ele>1933.996</ele>
        <time>2018-12-28T05:00:36Z</time>
      </trkpt>
      <trkpt lat="35.584660" lon="-111.976880">
        <ele>1933.613</ele>
        <time>2018-12-28T05:00:56Z</time>
      </trkpt>
      <trkpt lat="35.584720" lon="-111.977000">
        <ele>1933.443</ele>
        <time>2018-12-28T05:01:16Z</time>
      </trkpt>
      <trkpt lat="35.584770" lon="-111.977110">
        <ele>1933.207</ele>
        <time>2018-12-28T05:01:36Z</time>
      </trkpt>
      <trkpt lat="35.584830" lon="-111.977260">
        <ele>1932.908</ele>
        <time>2018-12-28T05:01:56Z</time>
      </trkpt>
      <trkpt lat="35.584980" lon="-111.977600">
        <ele>1932.424</ele>
        <time>2018-12-28T05:02:16Z</time>
      </trkpt>
      <trkpt lat="35.585080" lon="-111.977840">
        <ele>1932.032</ele>
        <time>2018-12-28T05:02:36Z</time>
      </trkpt>
      <trkpt lat="35.585190" lon="-111.978090">
        <ele>1931.557</ele>
        <time>2018-12-28T05:02:56Z</time>
      </trkpt>
      <trkpt lat="35.585290" lon="-111.978330">
        <ele>1931.198</ele>
        <time>2018-12-28T05:03:16Z</time>
      </trkpt>
      <trkpt lat="35.585390" lon="-111.978550">
        <ele>1930.783</ele>
        <time>2018-12-28T05:03:36Z</time>
      </trkpt>
      <trkpt lat="35.585490" lon="-111.978780">
        <ele>1930.333</ele>
        <time>2018-12-28T05:03:56Z</time>
      </trkpt>
      <trkpt lat="35.585650" lon="-111.979150">
        <ele>1929.965</ele>
        <time>2018-12-28T05:04:16Z</time>
      </trkpt>
      <trkpt lat="35.585750" lon="-111.979380">
        <ele>1929.539</ele>
        <time>2018-12-28T05:04:36Z</time>
      </trkpt>
      <trkpt lat="35.585840" lon="-111.979580">
        <ele>1929.338</ele>
        <time>2018-12-28T05:04:56Z</time>
      </trkpt>
      <trkpt lat="35.586010" lon="-111.979990">
        <ele>1928.870</ele>
        <time>2018-12-28T05:05:16Z</time>
      </trkpt>
      <trkpt lat="35.586050" lon="-111.980060">
        <ele>1928.717</ele>
        <time>2018-12-28T05:05:36Z</time>
      </trkpt>
      <trkpt lat="35.586130" lon="-111.980260">
        <ele>1928.608</ele>
        <time>2018-12-28T05:05:56Z</time>
      </trkpt>
      <trkpt lat="35.586240" lon="-111.980510">
        <ele>1928.456</ele>
        <time>2018-12-28T05:06:16Z</time>
      </trkpt>
      <trkpt lat="35.586360" lon="-111.980790">
        <ele>1928.474</ele>
        <time>2018-12-28T05:06:36Z</time>
      </trkpt>
      <trkpt lat="35.586400" lon="-111.980880">
        <ele>1928.449</ele>
        <time>2018-12-28T05:06:56Z</time>
      </trkpt>
      <trkpt lat="35.586450" lon="-111.981000">
        <ele>1928.390</ele>
        <time>2018-12-28T05:07:16Z</time>
      </trkpt>
      <trkpt lat="35.586540" lon="-111.981210">
        <ele>1928.295</ele>
        <time>2018-12-28T05:07:36Z</time>
      </trkpt>
      <trkpt lat="35.586680" lon="-111.981520">
        <ele>1927.935</ele>
        <time>2018-12-28T05:07:56Z</time>
      </trkpt>
      <trkpt lat="35.586740" lon="-111.981670">
        <ele>1927.817</ele>
        <time>2018-12-28T05:08:16Z</time>
      </trkpt>
      <trkpt lat="35.586780" lon="-111.981770">
        <ele>1927.751</ele>
        <time>2018-12-28T05:08:36Z</time>
      </trkpt>
      <trkpt lat="35.586830" lon="-111.981870">
        <ele>1927.627</ele>
        <time>2018-12-28T05:08:56Z</time>
      </trkpt>
      <trkpt lat="35.586890" lon="-111.982010">
        <ele>1927.468</ele>
        <time>2018-12-28T05:09:16Z</time>
      </trkpt>
      <trkpt lat="35.586990" lon="-111.982250">
        <ele>1927.114</ele>
        <time>2018-12-28T05:09:36Z</time>
      </trkpt>
      <trkpt lat="35.587090" lon="-111.982480">
        <ele>1926.608</ele>
        <time>2018-12-28T05:09:56Z</time>
      </trkpt>
      <trkpt lat="35.587190" lon="-111.982710">
        <ele>1925.815</ele>
        <time>2018-12-28T05:10:16Z</time>
      </trkpt>
      <trkpt lat="35.587250" lon="-111.982850">
        <ele>1925.413</ele>
        <time>2018-12-28T05:10:36Z</time>
      </trkpt>
      <trkpt lat="35.587340" lon="-111.983060">
        <ele>1924.748</ele>
        <time>2018-12-28T05:10:56Z</time>
      </trkpt>
      <trkpt lat="35.587390" lon="-111.983180">
        <ele>1924.339</ele>
        <time>2018-12-28T05:11:16Z</time>
      </trkpt>
      <trkpt lat="35.587520" lon="-111.983460">
        <ele>1923.154</ele>
        <time>2018-12-28T05:11:36Z</time>
      </trkpt>
      <trkpt lat="35.587630" lon="-111.983720">
        <ele>1922.424</ele>
        <time>2018-12-28T05:11:56Z</time>
      </trkpt>
      <trkpt lat="35.587700" lon="-111.983890">
        <ele>1922.236</ele>
        <time>2018-12-28T05:12:16Z</time>
      </trkpt>
      <trkpt lat="35.587790" lon="-111.984100">
        <ele>1922.030</ele>
        <time>2018-12-28T05:12:36Z</time>
      </trkpt>
      <trkpt lat="35.587830" lon="-111.984200">
        <ele>1922.056</ele>
        <time>2018-12-28T05:12:56Z</time>
      </trkpt>
      <trkpt lat="35.587960" lon="-111.984480">
        <ele>1921.959</ele>
        <time>2018-12-28T05:13:16Z</time>
      </trkpt>
      <trkpt lat="35.588040" lon="-111.984670">
        <ele>1921.914</ele>
        <time>2018-12-28T05:13:36Z</time>
      </trkpt>
      <trkpt lat="35.588120" lon="-111.984850">
        <ele>1922.008</ele>
        <time>2018-12-28T05:13:56Z</time>
      </trkpt>
      <trkpt lat="35.588190" lon="-111.985010">
        <ele>1922.128</ele>
        <time>2018-12-28T05:14:16Z</time>
      </trkpt>
      <trkpt lat="35.588270" lon="-111.985200">
        <ele>1922.216</ele>
        <time>2018-12-28T05:14:36Z</time>
      </trkpt>
      <trkpt lat="35.588370" lon="-111.985440">
        <ele>1922.181</ele>
        <time>2018-12-28T05:14:56Z</time>
      </trkpt>
      <trkpt lat="35.588670" lon="-111.986120">
        <ele>1921.422</ele>
        <time>2018-12-28T05:15:16Z</time>
      </trkpt>
      <trkpt lat="35.588780" lon="-111.986380">
        <ele>1921.087</ele>
        <time>2018-12-28T05:15:36Z</time>
      </trkpt>
      <trkpt lat="35.588830" lon="-111.986500">
        <ele>1920.467</ele>
        <time>2018-12-28T05:15:56Z</time>
      </trkpt>
      <trkpt lat="35.588950" lon="-111.986770">
        <ele>1918.579</ele>
        <time>2018-12-28T05:16:16Z</time>
      </trkpt>
      <trkpt lat="35.589050" lon="-111.987000">
        <ele>1917.533</ele>
        <time>2018-12-28T05:16:36Z</time>
      </trkpt>
      <trkpt lat="35.589140" lon="-111.987220">
        <ele>1917.177</ele>
        <time>2018-12-28T05:16:56Z</time>
      </trkpt>
      <trkpt lat="35.589250" lon="-111.987460">
        <ele>1916.861</ele>
        <time>2018-12-28T05:17:16Z</time>
      </trkpt>
      <trkpt lat="35.589520" lon="-111.988090">
        <ele>1916.327</ele>
        <time>2018-12-28T05:17:36Z</time>
      </trkpt>
      <trkpt lat="35.589570" lon="-111.988200">
        <ele>1916.308</ele>
        <time>2018-12-28T05:17:56Z</time>
      </trkpt>
      <trkpt lat="35.589710" lon="-111.988530">
        <ele>1916.380</ele>
        <time>2018-12-28T05:18:16Z</time>
      </trkpt>
      <trkpt lat="35.589870" lon="-111.988910">
        <ele>1916.638</ele>
        <time>2018-12-28T05:18:36Z</time>
      </trkpt>
      <trkpt lat="35.589970" lon="-111.989140">
        <ele>1916.773</ele>
        <time>2018-12-28T05:18:56Z</time>
      </trkpt>
      <trkpt lat="35.590070" lon="-111.989360">
        <ele>1916.844</ele>
        <time>2018-12-28T05:19:16Z</time>
      </trkpt>
      <trkpt lat="35.590180" lon="-111.989620">
        <ele>1916.959</ele>
        <time>2018-12-28T05:19:36Z</time>
      </trkpt>
      <trkpt lat="35.590290" lon="-111.989870">
        <ele>1917.069</ele>
        <time>2018-12-28T05:19:56Z</time>
      </trkpt>
      <trkpt lat="35.590380" lon="-111.990080">
        <ele>1916.961</ele>
        <time>2018-12-28T05:20:16Z</time>
      </trkpt>
      <trkpt lat="35.590520" lon="-111.990410">
        <ele>1916.855</ele>
        <time>2018-12-28T05:20:36Z</time>
      </trkpt>
      <trkpt lat="35.590590" lon="-111.990580">
        <ele>1916.845</ele>
        <time>2018-12-28T05:20:56Z</time>
      </trkpt>
      <trkpt lat="35.590700" lon="-111.990820">
        <ele>1916.847</ele>
        <time>2018-12-28T05:21:16Z</time>
      </trkpt>
      <trkpt lat="35.590800" lon="-111.991060">
        <ele>1916.911</ele>
        <time>2018-12-28T05:21:36Z</time>
      </trkpt>
      <trkpt lat="35.590850" lon="-111.991170">
        <ele>1917.008</ele>
        <time>2018-12-28T05:21:56Z</time>
      </trkpt>
      <trkpt lat="35.590900" lon="-111.991280">
        <ele>1917.167</ele>
        <time>2018-12-28T05:22:16Z</time>
      </trkpt>
      <trkpt lat="35.590970" lon="-111.991440">
        <ele>1917.265</ele>
        <time>2018-12-28T05:22:36Z</time>
      </trkpt>
      <trkpt lat="35.591010" lon="-111.991540">
        <ele>1917.230</ele>
        <time>2018-12-28T05:22:56Z</time>
      </trkpt>
      <trkpt lat="35.591050" lon="-111.991640">
        <ele>1917.271</ele>
        <time>2018-12-28T05:23:16Z</time>
      </trkpt>
      <trkpt lat="35.591110" lon="-111.991780">
        <ele>1917.236</ele>
        <time>2018-12-28T05:23:36Z</time>
      </trkpt>
      <trkpt lat="35.591170" lon="-111.991910">
        <ele>1917.346</ele>
        <time>2018-12-28T05:23:56Z</time>
      </trkpt>
      <trkpt lat="35.591220" lon="-111.992010">
        <ele>1917.328</ele>
        <time>2018-12-28T05:24:16Z</time>
      </trkpt>
      <trkpt lat="35.591250" lon="-111.992100">
        <ele>1917.322</ele>
        <time>2018-12-28T05:24:36Z</time>
      </trkpt>
      <trkpt lat="35.591300" lon="-111.992220">
        <ele>1917.432</ele>
        <time>2018-12-28T05:24:56Z</time>
      </trkpt>
      <trkpt lat="35.591350" lon="-111.992330">
        <ele>1917.492</ele>
        <time>2018-12-28T05:25:16Z</time>
      </trkpt>
      <trkpt lat="35.591400" lon="-111.992440">
        <ele>1917.511</ele>
        <time>2018-12-28T05:25:36Z</time>
      </trkpt>
      <trkpt lat="35.591440" lon="-111.992530">
        <ele>1917.508</ele>
        <time>2018-12-28T05:25:56Z</time>
      </trkpt>
      <trkpt lat="35.591480" lon="-111.992620">
        <ele>1917.586</ele>
        <time>2018-12-28T05:26:16Z</time>
      </trkpt>
      <trkpt lat="35.591520" lon="-111.992720">
        <ele>1917.564</ele>
        <time>2018-12-28T05:26:36Z</time>
      </trkpt>
      <trkpt lat="35.591560" lon="-111.992810">
        <ele>1917.539</ele>
        <time>2018-12-28T05:26:56Z</time>
      </trkpt>
      <trkpt lat="35.591610" lon="-111.992920">
        <ele>1917.560</ele>
        <time>2018-12-28T05:27:16Z</time>
      </trkpt>
      <trkpt lat="35.591660" lon="-111.993040">
        <ele>1917.415</ele>
        <time>2018-12-28T05:27:36Z</time>
      </trkpt>
      <trkpt lat="35.591700" lon="-111.993150">
        <ele>1917.325</ele>
        <time>2018-12-28T05:27:56Z</time>
      </trkpt>
      <trkpt lat="35.591730" lon="-111.993220">
        <ele>1917.257</ele>
        <time>2018-12-28T05:28:16Z</time>
      </trkpt>
      <trkpt lat="35.591750" lon="-111.993280">
        <ele>1917.171</ele>
        <time>2018-12-28T05:28:36Z</time>
      </trkpt>
      <trkpt lat="35.591800" lon="-111.993390">
        <ele>1917.039</ele>
        <time>2018-12-28T05:28:56Z</time>
      </trkpt>
      <trkpt lat="35.591850" lon="-111.993540">
        <ele>1916.701</ele>
        <time>2018-12-28T05:29:16Z</time>
      </trkpt>
      <trkpt lat="35.591900" lon="-111.993670">
        <ele>1916.521</ele>
        <time>2018-12-28T05:29:36Z</time>
      </trkpt>
      <trkpt lat="35.591960" lon="-111.993810">
        <ele>1916.308</ele>
        <time>2018-12-28T05:29:56Z</time>
      </trkpt>
      <trkpt lat="35.592040" lon="-111.994040">
        <ele>1915.866</ele>
        <time>2018-12-28T05:30:16Z</time>
      </trkpt>
      <trkpt lat="35.592090" lon="-111.994190">
        <ele>1915.694</ele>
        <time>2018-12-28T05:30:36Z</time>
      </trkpt>
      <trkpt lat="35.592130" lon="-111.994290">
        <ele>1915.419</ele>
        <time>2018-12-28T05:30:56Z</time>
      </trkpt>
      <trkpt lat="35.592150" lon="-111.994370">
        <ele>1915.380</ele>
        <time>2018-12-28T05:31:16Z</time>
      </trkpt>
      <trkpt lat="35.592210" lon="-111.994530">
        <ele>1915.215</ele>
        <time>2018-12-28T05:31:36Z</time>
      </trkpt>
      <trkpt lat="35.592250" lon="-111.994660">
        <ele>1915.175</ele>
        <time>2018-12-28T05:31:56Z</time>
      </trkpt>
      <trkpt lat="35.592290" lon="-111.994790">
        <ele>1915.047</ele>
        <time>2018-12-28T05:32:16Z</time>
      </trkpt>
      <trkpt lat="35.592340" lon="-111.994950">
        <ele>1914.661</ele>
        <time>2018-12-28T05:32:36Z</time>
      </trkpt>
      <trkpt lat="35.592370" lon="-111.995030">
        <ele>1914.417</ele>
        <time>2018-12-28T05:32:56Z</time>
      </trkpt>
      <trkpt lat="35.592390" lon="-111.995100">
        <ele>1914.287</ele>
        <time>2018-12-28T05:33:16Z</time>
      </trkpt>
      <trkpt lat="35.592410" lon="-111.995190">
        <ele>1913.915</ele>
        <time>2018-12-28T05:33:36Z</time>
      </trkpt>
      <trkpt lat="35.592460" lon="-111.995340">
        <ele>1913.508</ele>
        <time>2018-12-28T05:33:56Z</time>
      </trkpt>
      <trkpt lat="35.592500" lon="-111.995490">
        <ele>1913.144</ele>
        <time>2018-12-28T05:34:16Z</time>
      </trkpt>
      <trkpt lat="35.592540" lon="-111.995650">
        <ele>1912.832</ele>
        <time>2018-12-28T05:34:36Z</time>
      </trkpt>
      <trkpt lat="35.592580" lon="-111.995790">
        <ele>1912.547</ele>
        <time>2018-12-28T05:34:56Z</time>
      </trkpt>
      <trkpt lat="35.592610" lon="-111.995920">
        <ele>1912.328</ele>
        <time>2018-12-28T05:35:16Z</time>
      </trkpt>
      <trkpt lat="35.592660" lon="-111.996070">
        <ele>1912.173</ele>
        <time>2018-12-28T05:35:36Z</time>
      </trkpt>
      <trkpt lat="35.592710" lon="-111.996270">
        <ele>1911.813</ele>
        <time>2018-12-28T05:35:56Z</time>
      </trkpt>
      <trkpt lat="35.592850" lon="-111.996780">
        <ele>1910.955</ele>
        <time>2018-12-28T05:36:16Z</time>
      </trkpt>
      <trkpt lat="35.592890" lon="-111.996950">
        <ele>1910.849</ele>
        <time>2018-12-28T05:36:36Z</time>
      </trkpt>
      <trkpt lat="35.592980" lon="-111.997300">
        <ele>1910.512</ele>
        <time>2018-12-28T05:36:56Z</time>
      </trkpt>
      <trkpt lat="35.593050" lon="-111.997540">
        <ele>1910.332</ele>
        <time>2018-12-28T05:37:16Z</time>
      </trkpt>
      <trkpt lat="35.593180" lon="-111.998040">
        <ele>1910.205</ele>
        <time>2018-12-28T05:37:36Z</time>
      </trkpt>
      <trkpt lat="35.593250" lon="-111.998300">
        <ele>1910.208</ele>
        <time>2018-12-28T05:37:56Z</time>
      </trkpt>
      <trkpt lat="35.593320" lon="-111.998590">
        <ele>1910.164</ele>
        <time>2018-12-28T05:38:16Z</time>
      </trkpt>
      <trkpt lat="35.593390" lon="-111.998820">
        <ele>1910.122</ele>
        <time>2018-12-28T05:38:36Z</time>
      </trkpt>
      <trkpt lat="35.593480" lon="-111.999200">
        <ele>1910.367</ele>
        <time>2018-12-28T05:38:56Z</time>
      </trkpt>
      <trkpt lat="35.593550" lon="-111.999450">
        <ele>1910.478</ele>
        <time>2018-12-28T05:39:16Z</time>
      </trkpt>
      <trkpt lat="35.593590" lon="-111.999580">
        <ele>1910.463</ele>
        <time>2018-12-28T05:39:36Z</time>
      </trkpt>
      <trkpt lat="35.593660" lon="-111.999840">
        <ele>1910.423</ele>
        <time>2018-12-28T05:39:56Z</time>
      </trkpt>
      <trkpt lat="35.593690" lon="-111.999970">
        <ele>1910.445</ele>
        <time>2018-12-28T05:40:16Z</time>
      </trkpt>
      <trkpt lat="35.593730" lon="-112.000110">
        <ele>1909.849</ele>
        <time>2018-12-28T05:40:36Z</time>
      </trkpt>
      <trkpt lat="35.593800" lon="-112.000370">
        <ele>1910.318</ele>
        <time>2018-12-28T05:40:56Z</time>
      </trkpt>
      <trkpt lat="35.593860" lon="-112.000600">
        <ele>1910.798</ele>
        <time>2018-12-28T05:41:16Z</time>
      </trkpt>
      <trkpt lat="35.593890" lon="-112.000740">
        <ele>1910.817</ele>
        <time>2018-12-28T05:41:36Z</time>
      </trkpt>
      <trkpt lat="35.593930" lon="-112.000880">
        <ele>1910.808</ele>
        <time>2018-12-28T05:41:56Z</time>
      </trkpt>
      <trkpt lat="35.593990" lon="-112.001120">
        <ele>1910.774</ele>
        <time>2018-12-28T05:42:16Z</time>
      </trkpt>
      <trkpt lat="35.594030" lon="-112.001250">
        <ele>1910.632</ele>
        <time>2018-12-28T05:42:36Z</time>
      </trkpt>
      <trkpt lat="35.594060" lon="-112.001380">
        <ele>1910.677</ele>
        <time>2018-12-28T05:42:56Z</time>
      </trkpt>
      <trkpt lat="35.594100" lon="-112.001500">
        <ele>1910.578</ele>
        <time>2018-12-28T05:43:16Z</time>
      </trkpt>
      <trkpt lat="35.594130" lon="-112.001630">
        <ele>1910.553</ele>
        <time>2018-12-28T05:43:36Z</time>
      </trkpt>
      <trkpt lat="35.594160" lon="-112.001760">
        <ele>1910.463</ele>
        <time>2018-12-28T05:43:56Z</time>
      </trkpt>
      <trkpt lat="35.594200" lon="-112.001880">
        <ele>1910.385</ele>
        <time>2018-12-28T05:44:16Z</time>
      </trkpt>
      <trkpt lat="35.594230" lon="-112.002010">
        <ele>1910.029</ele>
        <time>2018-12-28T05:44:36Z</time>
      </trkpt>
      <trkpt lat="35.594270" lon="-112.002140">
        <ele>1909.967</ele>
        <time>2018-12-28T05:44:56Z</time>
      </trkpt>
      <trkpt lat="35.594300" lon="-112.002270">
        <ele>1909.781</ele>
        <time>2018-12-28T05:45:16Z</time>
      </trkpt>
      <trkpt lat="35.594330" lon="-112.002400">
        <ele>1909.519</ele>
        <time>2018-12-28T05:45:36Z</time>
      </trkpt>
      <trkpt lat="35.594370" lon="-112.002520">
        <ele>1909.208</ele>
        <time>2018-12-28T05:45:56Z</time>
      </trkpt>
      <trkpt lat="35.594410" lon="-112.002670">
        <ele>1909.019</ele>
        <time>2018-12-28T05:46:16Z</time>
      </trkpt>
      <trkpt lat="35.594440" lon="-112.002800">
        <ele>1909.077</ele>
        <time>2018-12-28T05:46:36Z</time>
      </trkpt>
      <trkpt lat="35.594500" lon="-112.003040">
        <ele>1908.932</ele>
        <time>2018-12-28T05:46:56Z</time>
      </trkpt>
      <trkpt lat="35.594540" lon="-112.003170">
        <ele>1909.073</ele>
        <time>2018-12-28T05:47:16Z</time>
      </trkpt>
      <trkpt lat="35.594570" lon="-112.003290">
        <ele>1908.788</ele>
        <time>2018-12-28T05:47:36Z</time>
      </trkpt>
      <trkpt lat="35.594610" lon="-112.003420">
        <ele>1908.258</ele>
        <time>2018-12-28T05:47:56Z</time>
      </trkpt>
      <trkpt lat="35.594650" lon="-112.003580">
        <ele>1907.290</ele>
        <time>2018-12-28T05:48:16Z</time>
      </trkpt>
      <trkpt lat="35.594700" lon="-112.003770">
        <ele>1906.054</ele>
        <time>2018-12-28T05:48:36Z</time>
      </trkpt>
      <trkpt lat="35.594770" lon="-112.004030">
        <ele>1904.947</ele>
        <time>2018-12-28T05:48:56Z</time>
      </trkpt>
      <trkpt lat="35.594930" lon="-112.004630">
        <ele>1903.729</ele>
        <time>2018-12-28T05:49:16Z</time>
      </trkpt>
      <trkpt lat="35.595110" lon="-112.005320">
        <ele>1904.521</ele>
        <time>2018-12-28T05:49:36Z</time>
      </trkpt>
      <trkpt lat="35.595140" lon="-112.005430">
        <ele>1904.808</ele>
        <time>2018-12-28T05:49:56Z</time>
      </trkpt>
      <trkpt lat="35.595210" lon="-112.005690">
        <ele>1905.567</ele>
        <time>2018-12-28T05:50:16Z</time>
      </trkpt>
      <trkpt lat="35.595310" lon="-112.006070">
        <ele>1907.085</ele>
        <time>2018-12-28T05:50:36Z</time>
      </trkpt>
      <trkpt lat="35.595390" lon="-112.006390">
        <ele>1908.370</ele>
        <time>2018-12-28T05:50:56Z</time>
      </trkpt>
      <trkpt lat="35.595500" lon="-112.006810">
        <ele>1909.261</ele>
        <time>2018-12-28T05:51:16Z</time>
      </trkpt>
      <trkpt lat="35.595610" lon="-112.007190">
        <ele>1909.446</ele>
        <time>2018-12-28T05:51:36Z</time>
      </trkpt>
      <trkpt lat="35.595790" lon="-112.007880">
        <ele>1909.086</ele>
        <time>2018-12-28T05:51:56Z</time>
      </trkpt>
      <trkpt lat="35.595870" lon="-112.008190">
        <ele>1908.638</ele>
        <time>2018-12-28T05:52:16Z</time>
      </trkpt>
      <trkpt lat="35.595940" lon="-112.008440">
        <ele>1908.212</ele>
        <time>2018-12-28T05:52:36Z</time>
      </trkpt>
      <trkpt lat="35.596000" lon="-112.008700">
        <ele>1908.079</ele>
        <time>2018-12-28T05:52:56Z</time>
      </trkpt>
      <trkpt lat="35.596080" lon="-112.008980">
        <ele>1908.005</ele>
        <time>2018-12-28T05:53:16Z</time>
      </trkpt>
      <trkpt lat="35.596160" lon="-112.009270">
        <ele>1908.125</ele>
        <time>2018-12-28T05:53:36Z</time>
      </trkpt>
      <trkpt lat="35.596230" lon="-112.009550">
        <ele>1908.508</ele>
        <time>2018-12-28T05:53:56Z</time>
      </trkpt>
      <trkpt lat="35.596270" lon="-112.009680">
        <ele>1908.730</ele>
        <time>2018-12-28T05:54:16Z</time>
      </trkpt>
      <trkpt lat="35.596320" lon="-112.009890">
        <ele>1909.078</ele>
        <time>2018-12-28T05:54:36Z</time>
      </trkpt>
      <trkpt lat="35.596370" lon="-112.010090">
        <ele>1909.363</ele>
        <time>2018-12-28T05:54:56Z</time>
      </trkpt>
      <trkpt lat="35.596440" lon="-112.010340">
        <ele>1909.424</ele>
        <time>2018-12-28T05:55:16Z</time>
      </trkpt>
      <trkpt lat="35.596500" lon="-112.010560">
        <ele>1909.699</ele>
        <time>2018-12-28T05:55:36Z</time>
      </trkpt>
      <trkpt lat="35.596580" lon="-112.010880">
        <ele>1909.749</ele>
        <time>2018-12-28T05:55:56Z</time>
      </trkpt>
      <trkpt lat="35.596660" lon="-112.011150">
        <ele>1909.721</ele>
        <time>2018-12-28T05:56:16Z</time>
      </trkpt>
      <trkpt lat="35.596740" lon="-112.011460">
        <ele>1909.595</ele>
        <time>2018-12-28T05:56:36Z</time>
      </trkpt>
      <trkpt lat="35.596810" lon="-112.011750">
        <ele>1909.257</ele>
        <time>2018-12-28T05:56:56Z</time>
      </trkpt>
      <trkpt lat="35.596870" lon="-112.011950">
        <ele>1908.900</ele>
        <time>2018-12-28T05:57:16Z</time>
      </trkpt>
      <trkpt lat="35.596920" lon="-112.012170">
        <ele>1908.520</ele>
        <time>2018-12-28T05:57:36Z</time>
      </trkpt>
      <trkpt lat="35.597010" lon="-112.012490">
        <ele>1907.708</ele>
        <time>2018-12-28T05:57:56Z</time>
      </trkpt>
      <trkpt lat="35.597070" lon="-112.012740">
        <ele>1907.068</ele>
        <time>2018-12-28T05:58:16Z</time>
      </trkpt>
      <trkpt lat="35.597120" lon="-112.012930">
        <ele>1906.446</ele>
        <time>2018-12-28T05:58:36Z</time>
      </trkpt>
      <trkpt lat="35.597180" lon="-112.013130">
        <ele>1905.841</ele>
        <time>2018-12-28T05:58:56Z</time>
      </trkpt>
      <trkpt lat="35.597240" lon="-112.013380">
        <ele>1904.992</ele>
        <time>2018-12-28T05:59:16Z</time>
      </trkpt>
      <trkpt lat="35.597280" lon="-112.013520">
        <ele>1904.467</ele>
        <time>2018-12-28T05:59:36Z</time>
      </trkpt>
      <trkpt lat="35.597340" lon="-112.013740">
        <ele>1903.867</ele>
        <time>2018-12-28T05:59:56Z</time>
      </trkpt>
      <trkpt lat="35.597390" lon="-112.013940">
        <ele>1903.559</ele>
        <time>2018-12-28T06:00:16Z</time>
      </trkpt>
      <trkpt lat="35.597450" lon="-112.014150">
        <ele>1903.323</ele>
        <time>2018-12-28T06:00:36Z</time>
      </trkpt>
      <trkpt lat="35.597490" lon="-112.014330">
        <ele>1903.332</ele>
        <time>2018-12-28T06:00:56Z</time>
      </trkpt>
      <trkpt lat="35.597550" lon="-112.014520">
        <ele>1903.292</ele>
        <time>2018-12-28T06:01:16Z</time>
      </trkpt>
      <trkpt lat="35.597560" lon="-112.014600">
        <ele>1903.211</ele>
        <time>2018-12-28T06:01:36Z</time>
      </trkpt>
      <trkpt lat="35.597630" lon="-112.014850">
        <ele>1903.108</ele>
        <time>2018-12-28T06:01:56Z</time>
      </trkpt>
      <trkpt lat="35.597690" lon="-112.015090">
        <ele>1902.986</ele>
        <time>2018-12-28T06:02:16Z</time>
      </trkpt>
      <trkpt lat="35.597730" lon="-112.015210">
        <ele>1902.664</ele>
        <time>2018-12-28T06:02:36Z</time>
      </trkpt>
      <trkpt lat="35.597770" lon="-112.015360">
        <ele>1902.019</ele>
        <time>2018-12-28T06:02:56Z</time>
      </trkpt>
      <trkpt lat="35.597870" lon="-112.015730">
        <ele>1899.130</ele>
        <time>2018-12-28T06:03:16Z</time>
      </trkpt>
      <trkpt lat="35.598100" lon="-112.016620">
        <ele>1897.035</ele>
        <time>2018-12-28T06:03:36Z</time>
      </trkpt>
      <trkpt lat="35.598150" lon="-112.016800">
        <ele>1897.125</ele>
        <time>2018-12-28T06:03:56Z</time>
      </trkpt>
      <trkpt lat="35.598220" lon="-112.017030">
        <ele>1897.237</ele>
        <time>2018-12-28T06:04:16Z</time>
      </trkpt>
      <trkpt lat="35.598290" lon="-112.017310">
        <ele>1897.361</ele>
        <time>2018-12-28T06:04:36Z</time>
      </trkpt>
      <trkpt lat="35.598360" lon="-112.017570">
        <ele>1897.522</ele>
        <time>2018-12-28T06:04:56Z</time>
      </trkpt>
      <trkpt lat="35.598430" lon="-112.017840">
        <ele>1898.662</ele>
        <time>2018-12-28T06:05:16Z</time>
      </trkpt>
      <trkpt lat="35.598510" lon="-112.018170">
        <ele>1901.008</ele>
        <time>2018-12-28T06:05:36Z</time>
      </trkpt>
      <trkpt lat="35.598570" lon="-112.018380">
        <ele>1902.308</ele>
        <time>2018-12-28T06:05:56Z</time>
      </trkpt>
      <trkpt lat="35.598620" lon="-112.018560">
        <ele>1903.085</ele>
        <time>2018-12-28T06:06:16Z</time>
      </trkpt>
      <trkpt lat="35.598660" lon="-112.018730">
        <ele>1903.343</ele>
        <time>2018-12-28T06:06:36Z</time>
      </trkpt>
      <trkpt lat="35.598710" lon="-112.018900">
        <ele>1903.578</ele>
        <time>2018-12-28T06:06:56Z</time>
      </trkpt>
      <trkpt lat="35.598750" lon="-112.019050">
        <ele>1903.649</ele>
        <time>2018-12-28T06:07:16Z</time>
      </trkpt>
      <trkpt lat="35.598790" lon="-112.019220">
        <ele>1903.684</ele>
        <time>2018-12-28T06:07:36Z</time>
      </trkpt>
      <trkpt lat="35.598840" lon="-112.019390">
        <ele>1903.654</ele>
        <time>2018-12-28T06:07:56Z</time>
      </trkpt>
      <trkpt lat="35.598910" lon="-112.019690">
        <ele>1903.536</ele>
        <time>2018-12-28T06:08:16Z</time>
      </trkpt>
      <trkpt lat="35.598980" lon="-112.019950">
        <ele>1903.590</ele>
        <time>2018-12-28T06:08:36Z</time>
      </trkpt>
      <trkpt lat="35.599030" lon="-112.020120">
        <ele>1903.522</ele>
        <time>2018-12-28T06:08:56Z</time>
      </trkpt>
      <trkpt lat="35.599070" lon="-112.020270">
        <ele>1903.462</ele>
        <time>2018-12-28T06:09:16Z</time>
      </trkpt>
      <trkpt lat="35.599140" lon="-112.020530">
        <ele>1903.208</ele>
        <time>2018-12-28T06:09:36Z</time>
      </trkpt>
      <trkpt lat="35.599250" lon="-112.020980">
        <ele>1902.908</ele>
        <time>2018-12-28T06:09:56Z</time>
      </trkpt>
      <trkpt lat="35.599360" lon="-112.021380">
        <ele>1901.895</ele>
        <time>2018-12-28T06:10:16Z</time>
      </trkpt>
      <trkpt lat="35.599470" lon="-112.021780">
        <ele>1900.653</ele>
        <time>2018-12-28T06:10:36Z</time>
      </trkpt>
      <trkpt lat="35.599600" lon="-112.022260">
        <ele>1899.148</ele>
        <time>2018-12-28T06:10:56Z</time>
      </trkpt>
      <trkpt lat="35.599640" lon="-112.022430">
        <ele>1898.519</ele>
        <time>2018-12-28T06:11:16Z</time>
      </trkpt>
      <trkpt lat="35.599700" lon="-112.022640">
        <ele>1898.074</ele>
        <time>2018-12-28T06:11:36Z</time>
      </trkpt>
      <trkpt lat="35.599720" lon="-112.022730">
        <ele>1898.024</ele>
        <time>2018-12-28T06:11:56Z</time>
      </trkpt>
      <trkpt lat="35.599770" lon="-112.022910">
        <ele>1897.866</ele>
        <time>2018-12-28T06:12:16Z</time>
      </trkpt>
      <trkpt lat="35.599820" lon="-112.023100">
        <ele>1897.730</ele>
        <time>2018-12-28T06:12:36Z</time>
      </trkpt>
      <trkpt lat="35.599890" lon="-112.023370">
        <ele>1897.491</ele>
        <time>2018-12-28T06:12:56Z</time>
      </trkpt>
      <trkpt lat="35.599950" lon="-112.023590">
        <ele>1897.181</ele>
        <time>2018-12-28T06:13:16Z</time>
      </trkpt>
      <trkpt lat="35.599980" lon="-112.023730">
        <ele>1896.919</ele>
        <time>2018-12-28T06:13:36Z</time>
      </trkpt>
      <trkpt lat="35.600020" lon="-112.023860">
        <ele>1896.708</ele>
        <time>2018-12-28T06:13:56Z</time>
      </trkpt>
      <trkpt lat="35.600090" lon="-112.024110">
        <ele>1896.262</ele>
        <time>2018-12-28T06:14:16Z</time>
      </trkpt>
      <trkpt lat="35.600150" lon="-112.024360">
        <ele>1895.510</ele>
        <time>2018-12-28T06:14:36Z</time>
      </trkpt>
      <trkpt lat="35.600220" lon="-112.024620">
        <ele>1894.935</ele>
        <time>2018-12-28T06:14:56Z</time>
      </trkpt>
      <trkpt lat="35.600320" lon="-112.025010">
        <ele>1894.276</ele>
        <time>2018-12-28T06:15:16Z</time>
      </trkpt>
      <trkpt lat="35.600390" lon="-112.025270">
        <ele>1893.731</ele>
        <time>2018-12-28T06:15:36Z</time>
      </trkpt>
      <trkpt lat="35.600490" lon="-112.025650">
        <ele>1892.871</ele>
        <time>2018-12-28T06:15:56Z</time>
      </trkpt>
      <trkpt lat="35.600590" lon="-112.026030">
        <ele>1891.923</ele>
        <time>2018-12-28T06:16:16Z</time>
      </trkpt>
      <trkpt lat="35.600660" lon="-112.026280">
        <ele>1891.617</ele>
        <time>2018-12-28T06:16:36Z</time>
      </trkpt>
      <trkpt lat="35.600730" lon="-112.026540">
        <ele>1891.375</ele>
        <time>2018-12-28T06:16:56Z</time>
      </trkpt>
      <trkpt lat="35.600800" lon="-112.026800">
        <ele>1891.128</ele>
        <time>2018-12-28T06:17:16Z</time>
      </trkpt>
      <trkpt lat="35.600870" lon="-112.027050">
        <ele>1890.920</ele>
        <time>2018-12-28T06:17:36Z</time>
      </trkpt>
      <trkpt lat="35.600940" lon="-112.027320">
        <ele>1890.908</ele>
        <time>2018-12-28T06:17:56Z</time>
      </trkpt>
      <trkpt lat="35.601000" lon="-112.027570">
        <ele>1890.340</ele>
        <time>2018-12-28T06:18:16Z</time>
      </trkpt>
      <trkpt lat="35.601040" lon="-112.027700">
        <ele>1889.588</ele>
        <time>2018-12-28T06:18:36Z</time>
      </trkpt>
      <trkpt lat="35.601100" lon="-112.027950">
        <ele>1887.823</ele>
        <time>2018-12-28T06:18:56Z</time>
      </trkpt>
      <trkpt lat="35.601170" lon="-112.028200">
        <ele>1886.494</ele>
        <time>2018-12-28T06:19:16Z</time>
      </trkpt>
      <trkpt lat="35.601240" lon="-112.028460">
        <ele>1885.819</ele>
        <time>2018-12-28T06:19:36Z</time>
      </trkpt>
      <trkpt lat="35.601310" lon="-112.028720">
        <ele>1885.329</ele>
        <time>2018-12-28T06:19:56Z</time>
      </trkpt>
      <trkpt lat="35.601410" lon="-112.029090">
        <ele>1884.781</ele>
        <time>2018-12-28T06:20:16Z</time>
      </trkpt>
      <trkpt lat="35.601480" lon="-112.029360">
        <ele>1884.675</ele>
        <time>2018-12-28T06:20:36Z</time>
      </trkpt>
      <trkpt lat="35.601550" lon="-112.029620">
        <ele>1884.638</ele>
        <time>2018-12-28T06:20:56Z</time>
      </trkpt>
      <trkpt lat="35.601610" lon="-112.029870">
        <ele>1884.570</ele>
        <time>2018-12-28T06:21:16Z</time>
      </trkpt>
      <trkpt lat="35.601650" lon="-112.030000">
        <ele>1884.617</ele>
        <time>2018-12-28T06:21:36Z</time>
      </trkpt>
      <trkpt lat="35.601700" lon="-112.030190">
        <ele>1884.708</ele>
        <time>2018-12-28T06:21:56Z</time>
      </trkpt>
      <trkpt lat="35.601740" lon="-112.030320">
        <ele>1884.756</ele>
        <time>2018-12-28T06:22:16Z</time>
      </trkpt>
      <trkpt lat="35.601760" lon="-112.030420">
        <ele>1884.794</ele>
        <time>2018-12-28T06:22:36Z</time>
      </trkpt>
      <trkpt lat="35.601830" lon="-112.030670">
        <ele>1884.749</ele>
        <time>2018-12-28T06:22:56Z</time>
      </trkpt>
      <trkpt lat="35.601880" lon="-112.030870">
        <ele>1884.710</ele>
        <time>2018-12-28T06:23:16Z</time>
      </trkpt>
      <trkpt lat="35.601950" lon="-112.031110">
        <ele>1884.785</ele>
        <time>2018-12-28T06:23:36Z</time>
      </trkpt>
      <trkpt lat="35.602000" lon="-112.031310">
        <ele>1884.725</ele>
        <time>2018-12-28T06:23:56Z</time>
      </trkpt>
      <trkpt lat="35.602050" lon="-112.031510">
        <ele>1884.737</ele>
        <time>2018-12-28T06:24:16Z</time>
      </trkpt>
      <trkpt lat="35.602120" lon="-112.031770">
        <ele>1884.741</ele>
        <time>2018-12-28T06:24:36Z</time>
      </trkpt>
      <trkpt lat="35.602180" lon="-112.032000">
        <ele>1884.716</ele>
        <time>2018-12-28T06:24:56Z</time>
      </trkpt>
      <trkpt lat="35.602240" lon="-112.032200">
        <ele>1884.776</ele>
        <time>2018-12-28T06:25:16Z</time>
      </trkpt>
      <trkpt lat="35.602280" lon="-112.032360">
        <ele>1884.713</ele>
        <time>2018-12-28T06:25:36Z</time>
      </trkpt>
      <trkpt lat="35.602320" lon="-112.032530">
        <ele>1884.708</ele>
        <time>2018-12-28T06:25:56Z</time>
      </trkpt>
      <trkpt lat="35.602360" lon="-112.032680">
        <ele>1884.754</ele>
        <time>2018-12-28T06:26:16Z</time>
      </trkpt>
      <trkpt lat="35.602380" lon="-112.032730">
        <ele>1884.732</ele>
        <time>2018-12-28T06:26:36Z</time>
      </trkpt>
      <trkpt lat="35.602440" lon="-112.032970">
        <ele>1884.927</ele>
        <time>2018-12-28T06:26:56Z</time>
      </trkpt>
      <trkpt lat="35.602490" lon="-112.033140">
        <ele>1885.188</ele>
        <time>2018-12-28T06:27:16Z</time>
      </trkpt>
      <trkpt lat="35.602540" lon="-112.033350">
        <ele>1885.313</ele>
        <time>2018-12-28T06:27:36Z</time>
      </trkpt>
      <trkpt lat="35.602600" lon="-112.033580">
        <ele>1885.513</ele>
        <time>2018-12-28T06:27:56Z</time>
      </trkpt>
      <trkpt lat="35.602660" lon="-112.033810">
        <ele>1885.555</ele>
        <time>2018-12-28T06:28:16Z</time>
      </trkpt>
      <trkpt lat="35.602720" lon="-112.034050">
        <ele>1885.459</ele>
        <time>2018-12-28T06:28:36Z</time>
      </trkpt>
      <trkpt lat="35.602780" lon="-112.034260">
        <ele>1885.352</ele>
        <time>2018-12-28T06:28:56Z</time>
      </trkpt>
      <trkpt lat="35.602830" lon="-112.034470">
        <ele>1885.253</ele>
        <time>2018-12-28T06:29:16Z</time>
      </trkpt>
      <trkpt lat="35.602880" lon="-112.034660">
        <ele>1885.108</ele>
        <time>2018-12-28T06:29:36Z</time>
      </trkpt>
      <trkpt lat="35.602950" lon="-112.034900">
        <ele>1884.808</ele>
        <time>2018-12-28T06:29:56Z</time>
      </trkpt>
      <trkpt lat="35.603010" lon="-112.035140">
        <ele>1884.258</ele>
        <time>2018-12-28T06:30:16Z</time>
      </trkpt>
      <trkpt lat="35.603080" lon="-112.035390">
        <ele>1882.996</ele>
        <time>2018-12-28T06:30:36Z</time>
      </trkpt>
      <trkpt lat="35.603130" lon="-112.035590">
        <ele>1881.951</ele>
        <time>2018-12-28T06:30:56Z</time>
      </trkpt>
      <trkpt lat="35.603200" lon="-112.035850">
        <ele>1880.872</ele>
        <time>2018-12-28T06:31:16Z</time>
      </trkpt>
      <trkpt lat="35.603250" lon="-112.036060">
        <ele>1880.017</ele>
        <time>2018-12-28T06:31:36Z</time>
      </trkpt>
      <trkpt lat="35.603310" lon="-112.036290">
        <ele>1879.467</ele>
        <time>2018-12-28T06:31:56Z</time>
      </trkpt>
      <trkpt lat="35.603390" lon="-112.036570">
        <ele>1879.199</ele>
        <time>2018-12-28T06:32:16Z</time>
      </trkpt>
      <trkpt lat="35.603550" lon="-112.037180">
        <ele>1878.743</ele>
        <time>2018-12-28T06:32:36Z</time>
      </trkpt>
      <trkpt lat="35.603690" lon="-112.037690">
        <ele>1878.485</ele>
        <time>2018-12-28T06:32:56Z</time>
      </trkpt>
      <trkpt lat="35.603720" lon="-112.037750">
        <ele>1878.389</ele>
        <time>2018-12-28T06:33:16Z</time>
      </trkpt>
      <trkpt lat="35.603720" lon="-112.037760">
        <ele>1878.317</ele>
        <time>2018-12-28T06:33:36Z</time>
      </trkpt>
      <trkpt lat="35.603730" lon="-112.037770">
        <ele>1878.308</ele>
        <time>2018-12-28T06:33:56Z</time>
      </trkpt>
      <trkpt lat="35.603730" lon="-112.037780">
        <ele>1878.231</ele>
        <time>2018-12-28T06:34:16Z</time>
      </trkpt>
      <trkpt lat="35.603900" lon="-112.038380">
        <ele>1877.219</ele>
        <time>2018-12-28T06:34:36Z</time>
      </trkpt>
      <trkpt lat="35.604060" lon="-112.038960">
        <ele>1876.194</ele>
        <time>2018-12-28T06:34:56Z</time>
      </trkpt>
      <trkpt lat="35.604180" lon="-112.039420">
        <ele>1875.315</ele>
        <time>2018-12-28T06:35:16Z</time>
      </trkpt>
      <trkpt lat="35.604460" lon="-112.040480">
        <ele>1873.980</ele>
        <time>2018-12-28T06:35:36Z</time>
      </trkpt>
      <trkpt lat="35.604620" lon="-112.041080">
        <ele>1873.220</ele>
        <time>2018-12-28T06:35:56Z</time>
      </trkpt>
      <trkpt lat="35.604760" lon="-112.041600">
        <ele>1873.062</ele>
        <time>2018-12-28T06:36:16Z</time>
      </trkpt>
      <trkpt lat="35.604900" lon="-112.042120">
        <ele>1872.996</ele>
        <time>2018-12-28T06:36:36Z</time>
      </trkpt>
      <trkpt lat="35.605010" lon="-112.042600">
        <ele>1872.836</ele>
        <time>2018-12-28T06:36:56Z</time>
      </trkpt>
      <trkpt lat="35.605090" lon="-112.042880">
        <ele>1872.517</ele>
        <time>2018-12-28T06:37:16Z</time>
      </trkpt>
      <trkpt lat="35.605150" lon="-112.043130">
        <ele>1872.418</ele>
        <time>2018-12-28T06:37:36Z</time>
      </trkpt>
      <trkpt lat="35.605150" lon="-112.043140">
        <ele>1872.408</ele>
        <time>2018-12-28T06:37:56Z</time>
      </trkpt>
      <trkpt lat="35.605150" lon="-112.043200">
        <ele>1872.476</ele>
        <time>2018-12-28T06:38:16Z</time>
      </trkpt>
      <trkpt lat="35.605160" lon="-112.043240">
        <ele>1872.374</ele>
        <time>2018-12-28T06:38:36Z</time>
      </trkpt>
      <trkpt lat="35.605230" lon="-112.043510">
        <ele>1871.739</ele>
        <time>2018-12-28T06:38:56Z</time>
      </trkpt>
      <trkpt lat="35.605290" lon="-112.043740">
        <ele>1871.360</ele>
        <time>2018-12-28T06:39:16Z</time>
      </trkpt>
      <trkpt lat="35.605350" lon="-112.043960">
        <ele>1870.885</ele>
        <time>2018-12-28T06:39:36Z</time>
      </trkpt>
      <trkpt lat="35.605370" lon="-112.044030">
        <ele>1870.625</ele>
        <time>2018-12-28T06:39:56Z</time>
      </trkpt>
      <trkpt lat="35.605400" lon="-112.044140">
        <ele>1870.457</ele>
        <time>2018-12-28T06:40:16Z</time>
      </trkpt>
      <trkpt lat="35.605470" lon="-112.044400">
        <ele>1869.951</ele>
        <time>2018-12-28T06:40:36Z</time>
      </trkpt>
      <trkpt lat="35.605540" lon="-112.044690">
        <ele>1869.629</ele>
        <time>2018-12-28T06:40:56Z</time>
      </trkpt>
      <trkpt lat="35.605620" lon="-112.044990">
        <ele>1869.400</ele>
        <time>2018-12-28T06:41:16Z</time>
      </trkpt>
      <trkpt lat="35.605660" lon="-112.045150">
        <ele>1869.520</ele>
        <time>2018-12-28T06:41:36Z</time>
      </trkpt>
      <trkpt lat="35.605730" lon="-112.045380">
        <ele>1870.108</ele>
        <time>2018-12-28T06:41:56Z</time>
      </trkpt>
      <trkpt lat="35.605790" lon="-112.045620">
        <ele>1870.675</ele>
        <time>2018-12-28T06:42:16Z</time>
      </trkpt>
      <trkpt lat="35.605820" lon="-112.045750">
        <ele>1870.973</ele>
        <time>2018-12-28T06:42:36Z</time>
      </trkpt>
      <trkpt lat="35.605860" lon="-112.045880">
        <ele>1871.268</ele>
        <time>2018-12-28T06:42:56Z</time>
      </trkpt>
      <trkpt lat="35.605890" lon="-112.046000">
        <ele>1871.539</ele>
        <time>2018-12-28T06:43:16Z</time>
      </trkpt>
      <trkpt lat="35.605920" lon="-112.046120">
        <ele>1871.784</ele>
        <time>2018-12-28T06:43:36Z</time>
      </trkpt>
      <trkpt lat="35.605980" lon="-112.046340">
        <ele>1872.054</ele>
        <time>2018-12-28T06:43:56Z</time>
      </trkpt>
      <trkpt lat="35.606040" lon="-112.046550">
        <ele>1872.496</ele>
        <time>2018-12-28T06:44:16Z</time>
      </trkpt>
      <trkpt lat="35.606080" lon="-112.046710">
        <ele>1872.940</ele>
        <time>2018-12-28T06:44:36Z</time>
      </trkpt>
      <trkpt lat="35.606110" lon="-112.046830">
        <ele>1873.324</ele>
        <time>2018-12-28T06:44:56Z</time>
      </trkpt>
      <trkpt lat="35.606160" lon="-112.047020">
        <ele>1874.304</ele>
        <time>2018-12-28T06:45:16Z</time>
      </trkpt>
      <trkpt lat="35.606210" lon="-112.047190">
        <ele>1874.914</ele>
        <time>2018-12-28T06:45:36Z</time>
      </trkpt>
      <trkpt lat="35.606260" lon="-112.047410">
        <ele>1875.708</ele>
        <time>2018-12-28T06:45:56Z</time>
      </trkpt>
      <trkpt lat="35.606310" lon="-112.047590">
        <ele>1876.315</ele>
        <time>2018-12-28T06:46:16Z</time>
      </trkpt>
      <trkpt lat="35.606390" lon="-112.047890">
        <ele>1877.253</ele>
        <time>2018-12-28T06:46:36Z</time>
      </trkpt>
      <trkpt lat="35.606460" lon="-112.048140">
        <ele>1878.098</ele>
        <time>2018-12-28T06:46:56Z</time>
      </trkpt>
      <trkpt lat="35.606520" lon="-112.048380">
        <ele>1878.369</ele>
        <time>2018-12-28T06:47:16Z</time>
      </trkpt>
      <trkpt lat="35.606580" lon="-112.048620">
        <ele>1878.564</ele>
        <time>2018-12-28T06:47:36Z</time>
      </trkpt>
      <trkpt lat="35.606610" lon="-112.048730">
        <ele>1878.544</ele>
        <time>2018-12-28T06:47:56Z</time>
      </trkpt>
      <trkpt lat="35.606650" lon="-112.048880">
        <ele>1878.546</ele>
        <time>2018-12-28T06:48:16Z</time>
      </trkpt>
      <trkpt lat="35.606700" lon="-112.049070">
        <ele>1878.560</ele>
        <time>2018-12-28T06:48:36Z</time>
      </trkpt>
      <trkpt lat="35.606790" lon="-112.049400">
        <ele>1878.564</ele>
        <time>2018-12-28T06:48:56Z</time>
      </trkpt>
      <trkpt lat="35.606840" lon="-112.049590">
        <ele>1878.406</ele>
        <time>2018-12-28T06:49:16Z</time>
      </trkpt>
      <trkpt lat="35.606890" lon="-112.049800">
        <ele>1878.516</ele>
        <time>2018-12-28T06:49:36Z</time>
      </trkpt>
      <trkpt lat="35.606960" lon="-112.050030">
        <ele>1878.508</ele>
        <time>2018-12-28T06:49:56Z</time>
      </trkpt>
      <trkpt lat="35.607010" lon="-112.050240">
        <ele>1878.579</ele>
        <time>2018-12-28T06:50:16Z</time>
      </trkpt>
      <trkpt lat="35.607090" lon="-112.050530">
        <ele>1878.367</ele>
        <time>2018-12-28T06:50:36Z</time>
      </trkpt>
      <trkpt lat="35.607160" lon="-112.050790">
        <ele>1878.342</ele>
        <time>2018-12-28T06:50:56Z</time>
      </trkpt>
      <trkpt lat="35.607240" lon="-112.051100">
        <ele>1878.233</ele>
        <time>2018-12-28T06:51:16Z</time>
      </trkpt>
      <trkpt lat="35.607290" lon="-112.051310">
        <ele>1878.078</ele>
        <time>2018-12-28T06:51:36Z</time>
      </trkpt>
      <trkpt lat="35.607380" lon="-112.051660">
        <ele>1877.828</ele>
        <time>2018-12-28T06:51:56Z</time>
      </trkpt>
      <trkpt lat="35.607420" lon="-112.051800">
        <ele>1877.720</ele>
        <time>2018-12-28T06:52:16Z</time>
      </trkpt>
      <trkpt lat="35.607460" lon="-112.051960">
        <ele>1877.774</ele>
        <time>2018-12-28T06:52:36Z</time>
      </trkpt>
      <trkpt lat="35.607510" lon="-112.052130">
        <ele>1877.873</ele>
        <time>2018-12-28T06:52:56Z</time>
      </trkpt>
      <trkpt lat="35.607560" lon="-112.052330">
        <ele>1877.985</ele>
        <time>2018-12-28T06:53:16Z</time>
      </trkpt>
      <trkpt lat="35.607620" lon="-112.052530">
        <ele>1877.813</ele>
        <time>2018-12-28T06:53:36Z</time>
      </trkpt>
      <trkpt lat="35.607680" lon="-112.052780">
        <ele>1877.708</ele>
        <time>2018-12-28T06:53:56Z</time>
      </trkpt>
      <trkpt lat="35.607780" lon="-112.053160">
        <ele>1877.360</ele>
        <time>2018-12-28T06:54:16Z</time>
      </trkpt>
      <trkpt lat="35.607880" lon="-112.053510">
        <ele>1876.638</ele>
        <time>2018-12-28T06:54:36Z</time>
      </trkpt>
      <trkpt lat="35.607920" lon="-112.053670">
        <ele>1876.463</ele>
        <time>2018-12-28T06:54:56Z</time>
      </trkpt>
      <trkpt lat="35.607980" lon="-112.053930">
        <ele>1876.054</ele>
        <time>2018-12-28T06:55:16Z</time>
      </trkpt>
      <trkpt lat="35.608040" lon="-112.054120">
        <ele>1875.619</ele>
        <time>2018-12-28T06:55:36Z</time>
      </trkpt>
      <trkpt lat="35.608040" lon="-112.054130">
        <ele>1875.699</ele>
        <time>2018-12-28T06:55:56Z</time>
      </trkpt>
      <trkpt lat="35.608120" lon="-112.054440">
        <ele>1875.091</ele>
        <time>2018-12-28T06:56:16Z</time>
      </trkpt>
      <trkpt lat="35.608220" lon="-112.054830">
        <ele>1874.285</ele>
        <time>2018-12-28T06:56:36Z</time>
      </trkpt>
      <trkpt lat="35.608290" lon="-112.055080">
        <ele>1873.924</ele>
        <time>2018-12-28T06:56:56Z</time>
      </trkpt>
      <trkpt lat="35.608340" lon="-112.055260">
        <ele>1873.604</ele>
        <time>2018-12-28T06:57:16Z</time>
      </trkpt>
      <trkpt lat="35.608420" lon="-112.055550">
        <ele>1873.214</ele>
        <time>2018-12-28T06:57:36Z</time>
      </trkpt>
      <trkpt lat="35.608470" lon="-112.055750">
        <ele>1873.108</ele>
        <time>2018-12-28T06:57:56Z</time>
      </trkpt>
      <trkpt lat="35.608490" lon="-112.055840">
        <ele>1873.155</ele>
        <time>2018-12-28T06:58:16Z</time>
      </trkpt>
      <trkpt lat="35.608520" lon="-112.055930">
        <ele>1873.113</ele>
        <time>2018-12-28T06:58:36Z</time>
      </trkpt>
      <trkpt lat="35.608550" lon="-112.056060">
        <ele>1873.228</ele>
        <time>2018-12-28T06:58:56Z</time>
      </trkpt>
      <trkpt lat="35.608580" lon="-112.056180">
        <ele>1873.469</ele>
        <time>2018-12-28T06:59:16Z</time>
      </trkpt>
      <trkpt lat="35.608620" lon="-112.056300">
        <ele>1873.644</ele>
        <time>2018-12-28T06:59:36Z</time>
      </trkpt>
      <trkpt lat="35.608650" lon="-112.056440">
        <ele>1873.874</ele>
        <time>2018-12-28T06:59:56Z</time>
      </trkpt>
      <trkpt lat="35.608690" lon="-112.056570">
        <ele>1874.056</ele>
        <time>2018-12-28T07:00:16Z</time>
      </trkpt>
      <trkpt lat="35.608720" lon="-112.056700">
        <ele>1874.180</ele>
        <time>2018-12-28T07:00:36Z</time>
      </trkpt>
      <trkpt lat="35.608820" lon="-112.057080">
        <ele>1874.175</ele>
        <time>2018-12-28T07:00:56Z</time>
      </trkpt>
      <trkpt lat="35.608850" lon="-112.057210">
        <ele>1874.128</ele>
        <time>2018-12-28T07:01:16Z</time>
      </trkpt>
      <trkpt lat="35.608980" lon="-112.057660">
        <ele>1873.820</ele>
        <time>2018-12-28T07:01:36Z</time>
      </trkpt>
      <trkpt lat="35.609250" lon="-112.058700">
        <ele>1872.608</ele>
        <time>2018-12-28T07:01:56Z</time>
      </trkpt>
      <trkpt lat="35.609380" lon="-112.059210">
        <ele>1872.240</ele>
        <time>2018-12-28T07:02:16Z</time>
      </trkpt>
      <trkpt lat="35.609450" lon="-112.059450">
        <ele>1872.068</ele>
        <time>2018-12-28T07:02:36Z</time>
      </trkpt>
      <trkpt lat="35.609530" lon="-112.059760">
        <ele>1871.933</ele>
        <time>2018-12-28T07:02:56Z</time>
      </trkpt>
      <trkpt lat="35.609590" lon="-112.059980">
        <ele>1871.854</ele>
        <time>2018-12-28T07:03:16Z</time>
      </trkpt>
      <trkpt lat="35.609660" lon="-112.060230">
        <ele>1871.669</ele>
        <time>2018-12-28T07:03:36Z</time>
      </trkpt>
      <trkpt lat="35.609700" lon="-112.060380">
        <ele>1871.519</ele>
        <time>2018-12-28T07:03:56Z</time>
      </trkpt>
      <trkpt lat="35.609720" lon="-112.060480">
        <ele>1871.421</ele>
        <time>2018-12-28T07:04:16Z</time>
      </trkpt>
      <trkpt lat="35.609760" lon="-112.060640">
        <ele>1871.275</ele>
        <time>2018-12-28T07:04:36Z</time>
      </trkpt>
      <trkpt lat="35.609800" lon="-112.060760">
        <ele>1871.181</ele>
        <time>2018-12-28T07:04:56Z</time>
      </trkpt>
      <trkpt lat="35.609830" lon="-112.060870">
        <ele>1871.161</ele>
        <time>2018-12-28T07:05:16Z</time>
      </trkpt>
      <trkpt lat="35.609900" lon="-112.061140">
        <ele>1870.917</ele>
        <time>2018-12-28T07:05:36Z</time>
      </trkpt>
      <trkpt lat="35.609930" lon="-112.061270">
        <ele>1870.808</ele>
        <time>2018-12-28T07:05:56Z</time>
      </trkpt>
      <trkpt lat="35.610000" lon="-112.061540">
        <ele>1870.751</ele>
        <time>2018-12-28T07:06:16Z</time>
      </trkpt>
      <trkpt lat="35.610040" lon="-112.061690">
        <ele>1870.649</ele>
        <time>2018-12-28T07:06:36Z</time>
      </trkpt>
      <trkpt lat="35.610070" lon="-112.061820">
        <ele>1870.514</ele>
        <time>2018-12-28T07:06:56Z</time>
      </trkpt>
      <trkpt lat="35.610100" lon="-112.061910">
        <ele>1870.565</ele>
        <time>2018-12-28T07:07:16Z</time>
      </trkpt>
      <trkpt lat="35.610130" lon="-112.062030">
        <ele>1870.460</ele>
        <time>2018-12-28T07:07:36Z</time>
      </trkpt>
      <trkpt lat="35.610170" lon="-112.062160">
        <ele>1870.350</ele>
        <time>2018-12-28T07:07:56Z</time>
      </trkpt>
      <trkpt lat="35.610210" lon="-112.062330">
        <ele>1870.142</ele>
        <time>2018-12-28T07:08:16Z</time>
      </trkpt>
      <trkpt lat="35.610260" lon="-112.062520">
        <ele>1869.976</ele>
        <time>2018-12-28T07:08:36Z</time>
      </trkpt>
      <trkpt lat="35.610280" lon="-112.062580">
        <ele>1869.884</ele>
        <time>2018-12-28T07:08:56Z</time>
      </trkpt>
      <trkpt lat="35.610340" lon="-112.062810">
        <ele>1869.607</ele>
        <time>2018-12-28T07:09:16Z</time>
      </trkpt>
      <trkpt lat="35.610410" lon="-112.063070">
        <ele>1869.517</ele>
        <time>2018-12-28T07:09:36Z</time>
      </trkpt>
      <trkpt lat="35.610520" lon="-112.063490">
        <ele>1869.508</ele>
        <time>2018-12-28T07:09:56Z</time>
      </trkpt>
      <trkpt lat="35.610580" lon="-112.063740">
        <ele>1869.591</ele>
        <time>2018-12-28T07:10:16Z</time>
      </trkpt>
      <trkpt lat="35.610690" lon="-112.064130">
        <ele>1869.499</ele>
        <time>2018-12-28T07:10:36Z</time>
      </trkpt>
      <trkpt lat="35.610740" lon="-112.064350">
        <ele>1869.314</ele>
        <time>2018-12-28T07:10:56Z</time>
      </trkpt>
      <trkpt lat="35.610790" lon="-112.064520">
        <ele>1869.215</ele>
        <time>2018-12-28T07:11:16Z</time>
      </trkpt>
      <trkpt lat="35.610810" lon="-112.064610">
        <ele>1869.110</ele>
        <time>2018-12-28T07:11:36Z</time>
      </trkpt>
      <trkpt lat="35.610850" lon="-112.064740">
        <ele>1868.940</ele>
        <time>2018-12-28T07:11:56Z</time>
      </trkpt>
      <trkpt lat="35.610890" lon="-112.064900">
        <ele>1868.892</ele>
        <time>2018-12-28T07:12:16Z</time>
      </trkpt>
      <trkpt lat="35.610950" lon="-112.065130">
        <ele>1868.766</ele>
        <time>2018-12-28T07:12:36Z</time>
      </trkpt>
      <trkpt lat="35.611030" lon="-112.065420">
        <ele>1868.884</ele>
        <time>2018-12-28T07:12:56Z</time>
      </trkpt>
      <trkpt lat="35.611090" lon="-112.065640">
        <ele>1868.607</ele>
        <time>2018-12-28T07:13:16Z</time>
      </trkpt>
      <trkpt lat="35.611150" lon="-112.065900">
        <ele>1868.417</ele>
        <time>2018-12-28T07:13:36Z</time>
      </trkpt>
      <trkpt lat="35.611200" lon="-112.066060">
        <ele>1868.308</ele>
        <time>2018-12-28T07:13:56Z</time>
      </trkpt>
      <trkpt lat="35.611260" lon="-112.066320">
        <ele>1868.291</ele>
        <time>2018-12-28T07:14:16Z</time>
      </trkpt>
      <trkpt lat="35.611330" lon="-112.066570">
        <ele>1868.389</ele>
        <time>2018-12-28T07:14:36Z</time>
      </trkpt>
      <trkpt lat="35.611390" lon="-112.066800">
        <ele>1868.464</ele>
        <time>2018-12-28T07:14:56Z</time>
      </trkpt>
      <trkpt lat="35.611430" lon="-112.066950">
        <ele>1868.575</ele>
        <time>2018-12-28T07:15:16Z</time>
      </trkpt>
      <trkpt lat="35.611470" lon="-112.067090">
        <ele>1868.620</ele>
        <time>2018-12-28T07:15:36Z</time>
      </trkpt>
      <trkpt lat="35.611510" lon="-112.067240">
        <ele>1868.720</ele>
        <time>2018-12-28T07:15:56Z</time>
      </trkpt>
      <trkpt lat="35.611550" lon="-112.067370">
        <ele>1868.842</ele>
        <time>2018-12-28T07:16:16Z</time>
      </trkpt>
      <trkpt lat="35.611590" lon="-112.067550">
        <ele>1868.796</ele>
        <time>2018-12-28T07:16:36Z</time>
      </trkpt>
      <trkpt lat="35.611680" lon="-112.067890">
        <ele>1868.722</ele>
        <time>2018-12-28T07:16:56Z</time>
      </trkpt>
      <trkpt lat="35.611700" lon="-112.067960">
        <ele>1868.762</ele>
        <time>2018-12-28T07:17:16Z</time>
      </trkpt>
      <trkpt lat="35.611740" lon="-112.068090">
        <ele>1868.708</ele>
        <time>2018-12-28T07:17:36Z</time>
      </trkpt>
      <trkpt lat="35.611770" lon="-112.068210">
        <ele>1868.808</ele>
        <time>2018-12-28T07:17:56Z</time>
      </trkpt>
      <trkpt lat="35.611820" lon="-112.068410">
        <ele>1868.885</ele>
        <time>2018-12-28T07:18:16Z</time>
      </trkpt>
      <trkpt lat="35.611870" lon="-112.068600">
        <ele>1868.783</ele>
        <time>2018-12-28T07:18:36Z</time>
      </trkpt>
      <trkpt lat="35.611980" lon="-112.069010">
        <ele>1868.588</ele>
        <time>2018-12-28T07:18:56Z</time>
      </trkpt>
      <trkpt lat="35.612000" lon="-112.069120">
        <ele>1868.449</ele>
        <time>2018-12-28T07:19:16Z</time>
      </trkpt>
      <trkpt lat="35.612180" lon="-112.069790">
        <ele>1868.134</ele>
        <time>2018-12-28T07:19:36Z</time>
      </trkpt>
      <trkpt lat="35.612220" lon="-112.069930">
        <ele>1868.084</ele>
        <time>2018-12-28T07:19:56Z</time>
      </trkpt>
      <trkpt lat="35.612280" lon="-112.070160">
        <ele>1867.996</ele>
        <time>2018-12-28T07:20:16Z</time>
      </trkpt>
      <trkpt lat="35.612320" lon="-112.070300">
        <ele>1867.880</ele>
        <time>2018-12-28T07:20:36Z</time>
      </trkpt>
      <trkpt lat="35.612350" lon="-112.070450">
        <ele>1867.755</ele>
        <time>2018-12-28T07:20:56Z</time>
      </trkpt>
      <trkpt lat="35.612400" lon="-112.070610">
        <ele>1867.607</ele>
        <time>2018-12-28T07:21:16Z</time>
      </trkpt>
      <trkpt lat="35.612460" lon="-112.070850">
        <ele>1867.317</ele>
        <time>2018-12-28T07:21:36Z</time>
      </trkpt>
      <trkpt lat="35.612510" lon="-112.071020">
        <ele>1867.108</ele>
        <time>2018-12-28T07:21:56Z</time>
      </trkpt>
      <trkpt lat="35.612570" lon="-112.071250">
        <ele>1866.988</ele>
        <time>2018-12-28T07:22:16Z</time>
      </trkpt>
      <trkpt lat="35.612620" lon="-112.071450">
        <ele>1866.796</ele>
        <time>2018-12-28T07:22:36Z</time>
      </trkpt>
      <trkpt lat="35.612660" lon="-112.071600">
        <ele>1866.661</ele>
        <time>2018-12-28T07:22:56Z</time>
      </trkpt>
      <trkpt lat="35.612700" lon="-112.071730">
        <ele>1866.552</ele>
        <time>2018-12-28T07:23:16Z</time>
      </trkpt>
      <trkpt lat="35.612730" lon="-112.071830">
        <ele>1866.467</ele>
        <time>2018-12-28T07:23:36Z</time>
      </trkpt>
      <trkpt lat="35.612760" lon="-112.071960">
        <ele>1866.317</ele>
        <time>2018-12-28T07:23:56Z</time>
      </trkpt>
      <trkpt lat="35.612800" lon="-112.072100">
        <ele>1866.369</ele>
        <time>2018-12-28T07:24:16Z</time>
      </trkpt>
      <trkpt lat="35.612830" lon="-112.072240">
        <ele>1866.263</ele>
        <time>2018-12-28T07:24:36Z</time>
      </trkpt>
      <trkpt lat="35.612870" lon="-112.072380">
        <ele>1866.249</ele>
        <time>2018-12-28T07:24:56Z</time>
      </trkpt>
      <trkpt lat="35.612910" lon="-112.072540">
        <ele>1865.702</ele>
        <time>2018-12-28T07:25:16Z</time>
      </trkpt>
      <trkpt lat="35.612950" lon="-112.072670">
        <ele>1865.322</ele>
        <time>2018-12-28T07:25:36Z</time>
      </trkpt>
      <trkpt lat="35.612990" lon="-112.072850">
        <ele>1865.008</ele>
        <time>2018-12-28T07:25:56Z</time>
      </trkpt>
      <trkpt lat="35.613030" lon="-112.073000">
        <ele>1864.717</ele>
        <time>2018-12-28T07:26:16Z</time>
      </trkpt>
      <trkpt lat="35.613090" lon="-112.073190">
        <ele>1864.395</ele>
        <time>2018-12-28T07:26:36Z</time>
      </trkpt>
      <trkpt lat="35.613170" lon="-112.073500">
        <ele>1863.990</ele>
        <time>2018-12-28T07:26:56Z</time>
      </trkpt>
      <trkpt lat="35.613190" lon="-112.073590">
        <ele>1863.721</ele>
        <time>2018-12-28T07:27:16Z</time>
      </trkpt>
      <trkpt lat="35.613220" lon="-112.073710">
        <ele>1863.576</ele>
        <time>2018-12-28T07:27:36Z</time>
      </trkpt>
      <trkpt lat="35.613260" lon="-112.073860">
        <ele>1863.146</ele>
        <time>2018-12-28T07:27:56Z</time>
      </trkpt>
      <trkpt lat="35.613310" lon="-112.074020">
        <ele>1862.858</ele>
        <time>2018-12-28T07:28:16Z</time>
      </trkpt>
      <trkpt lat="35.613380" lon="-112.074290">
        <ele>1862.252</ele>
        <time>2018-12-28T07:28:36Z</time>
      </trkpt>
      <trkpt lat="35.613460" lon="-112.074620">
        <ele>1861.842</ele>
        <time>2018-12-28T07:28:56Z</time>
      </trkpt>
      <trkpt lat="35.613600" lon="-112.075150">
        <ele>1861.322</ele>
        <time>2018-12-28T07:29:16Z</time>
      </trkpt>
      <trkpt lat="35.613680" lon="-112.075430">
        <ele>1861.014</ele>
        <time>2018-12-28T07:29:36Z</time>
      </trkpt>
      <trkpt lat="35.613800" lon="-112.075890">
        <ele>1860.708</ele>
        <time>2018-12-28T07:29:56Z</time>
      </trkpt>
      <trkpt lat="35.613880" lon="-112.076200">
        <ele>1860.567</ele>
        <time>2018-12-28T07:30:16Z</time>
      </trkpt>
      <trkpt lat="35.613970" lon="-112.076530">
        <ele>1860.425</ele>
        <time>2018-12-28T07:30:36Z</time>
      </trkpt>
      <trkpt lat="35.614040" lon="-112.076780">
        <ele>1860.470</ele>
        <time>2018-12-28T07:30:56Z</time>
      </trkpt>
      <trkpt lat="35.614050" lon="-112.076840">
        <ele>1860.351</ele>
        <time>2018-12-28T07:31:16Z</time>
      </trkpt>
      <trkpt lat="35.614090" lon="-112.076990">
        <ele>1859.866</ele>
        <time>2018-12-28T07:31:36Z</time>
      </trkpt>
      <trkpt lat="35.614150" lon="-112.077200">
        <ele>1859.396</ele>
        <time>2018-12-28T07:31:56Z</time>
      </trkpt>
      <trkpt lat="35.614200" lon="-112.077420">
        <ele>1858.768</ele>
        <time>2018-12-28T07:32:16Z</time>
      </trkpt>
      <trkpt lat="35.614250" lon="-112.077600">
        <ele>1858.352</ele>
        <time>2018-12-28T07:32:36Z</time>
      </trkpt>
      <trkpt lat="35.614310" lon="-112.077810">
        <ele>1857.513</ele>
        <time>2018-12-28T07:32:56Z</time>
      </trkpt>
      <trkpt lat="35.614360" lon="-112.078000">
        <ele>1856.643</ele>
        <time>2018-12-28T07:33:16Z</time>
      </trkpt>
      <trkpt lat="35.614410" lon="-112.078210">
        <ele>1855.607</ele>
        <time>2018-12-28T07:33:36Z</time>
      </trkpt>
      <trkpt lat="35.614450" lon="-112.078350">
        <ele>1855.408</ele>
        <time>2018-12-28T07:33:56Z</time>
      </trkpt>
      <trkpt lat="35.614490" lon="-112.078520">
        <ele>1855.174</ele>
        <time>2018-12-28T07:34:16Z</time>
      </trkpt>
      <trkpt lat="35.614550" lon="-112.078730">
        <ele>1854.622</ele>
        <time>2018-12-28T07:34:36Z</time>
      </trkpt>
      <trkpt lat="35.614580" lon="-112.078870">
        <ele>1854.377</ele>
        <time>2018-12-28T07:34:56Z</time>
      </trkpt>
      <trkpt lat="35.614630" lon="-112.079020">
        <ele>1853.968</ele>
        <time>2018-12-28T07:35:16Z</time>
      </trkpt>
      <trkpt lat="35.614670" lon="-112.079190">
        <ele>1853.773</ele>
        <time>2018-12-28T07:35:36Z</time>
      </trkpt>
      <trkpt lat="35.614710" lon="-112.079360">
        <ele>1853.523</ele>
        <time>2018-12-28T07:35:56Z</time>
      </trkpt>
      <trkpt lat="35.614760" lon="-112.079520">
        <ele>1853.315</ele>
        <time>2018-12-28T07:36:16Z</time>
      </trkpt>
      <trkpt lat="35.614820" lon="-112.079760">
        <ele>1853.169</ele>
        <time>2018-12-28T07:36:36Z</time>
      </trkpt>
      <trkpt lat="35.614880" lon="-112.079990">
        <ele>1852.917</ele>
        <time>2018-12-28T07:36:56Z</time>
      </trkpt>
      <trkpt lat="35.614950" lon="-112.080240">
        <ele>1852.887</ele>
        <time>2018-12-28T07:37:16Z</time>
      </trkpt>
      <trkpt lat="35.614980" lon="-112.080370">
        <ele>1852.815</ele>
        <time>2018-12-28T07:37:36Z</time>
      </trkpt>
      <trkpt lat="35.615020" lon="-112.080500">
        <ele>1852.908</ele>
        <time>2018-12-28T07:37:56Z</time>
      </trkpt>
      <trkpt lat="35.615080" lon="-112.080750">
        <ele>1852.944</ele>
        <time>2018-12-28T07:38:16Z</time>
      </trkpt>
      <trkpt lat="35.615120" lon="-112.080910">
        <ele>1853.032</ele>
        <time>2018-12-28T07:38:36Z</time>
      </trkpt>
      <trkpt lat="35.615150" lon="-112.081010">
        <ele>1853.097</ele>
        <time>2018-12-28T07:38:56Z</time>
      </trkpt>
      <trkpt lat="35.615190" lon="-112.081170">
        <ele>1853.038</ele>
        <time>2018-12-28T07:39:16Z</time>
      </trkpt>
      <trkpt lat="35.615260" lon="-112.081410">
        <ele>1853.043</ele>
        <time>2018-12-28T07:39:36Z</time>
      </trkpt>
      <trkpt lat="35.615330" lon="-112.081680">
        <ele>1853.013</ele>
        <time>2018-12-28T07:39:56Z</time>
      </trkpt>
      <trkpt lat="35.615390" lon="-112.081920">
        <ele>1853.145</ele>
        <time>2018-12-28T07:40:16Z</time>
      </trkpt>
      <trkpt lat="35.615460" lon="-112.082160">
        <ele>1853.159</ele>
        <time>2018-12-28T07:40:36Z</time>
      </trkpt>
      <trkpt lat="35.615490" lon="-112.082290">
        <ele>1853.168</ele>
        <time>2018-12-28T07:40:56Z</time>
      </trkpt>
      <trkpt lat="35.615530" lon="-112.082430">
        <ele>1853.042</ele>
        <time>2018-12-28T07:41:16Z</time>
      </trkpt>
      <trkpt lat="35.615570" lon="-112.082580">
        <ele>1852.926</ele>
        <time>2018-12-28T07:41:36Z</time>
      </trkpt>
      <trkpt lat="35.615630" lon="-112.082800">
        <ele>1852.708</ele>
        <time>2018-12-28T07:41:56Z</time>
      </trkpt>
      <trkpt lat="35.615660" lon="-112.082930">
        <ele>1852.669</ele>
        <time>2018-12-28T07:42:16Z</time>
      </trkpt>
      <trkpt lat="35.615700" lon="-112.083060">
        <ele>1852.497</ele>
        <time>2018-12-28T07:42:36Z</time>
      </trkpt>
      <trkpt lat="35.615730" lon="-112.083190">
        <ele>1852.242</ele>
        <time>2018-12-28T07:42:56Z</time>
      </trkpt>
      <trkpt lat="35.615760" lon="-112.083320">
        <ele>1852.043</ele>
        <time>2018-12-28T07:43:16Z</time>
      </trkpt>
      <trkpt lat="35.615800" lon="-112.083450">
        <ele>1851.738</ele>
        <time>2018-12-28T07:43:36Z</time>
      </trkpt>
      <trkpt lat="35.615830" lon="-112.083580">
        <ele>1851.518</ele>
        <time>2018-12-28T07:43:56Z</time>
      </trkpt>
      <trkpt lat="35.615860" lon="-112.083700">
        <ele>1851.330</ele>
        <time>2018-12-28T07:44:16Z</time>
      </trkpt>
      <trkpt lat="35.615900" lon="-112.083830">
        <ele>1851.154</ele>
        <time>2018-12-28T07:44:36Z</time>
      </trkpt>
      <trkpt lat="35.615930" lon="-112.083960">
        <ele>1850.994</ele>
        <time>2018-12-28T07:44:56Z</time>
      </trkpt>
      <trkpt lat="35.615970" lon="-112.084090">
        <ele>1850.657</ele>
        <time>2018-12-28T07:45:16Z</time>
      </trkpt>
      <trkpt lat="35.616000" lon="-112.084220">
        <ele>1850.422</ele>
        <time>2018-12-28T07:45:36Z</time>
      </trkpt>
      <trkpt lat="35.616030" lon="-112.084360">
        <ele>1850.108</ele>
        <time>2018-12-28T07:45:56Z</time>
      </trkpt>
      <trkpt lat="35.616070" lon="-112.084490">
        <ele>1849.922</ele>
        <time>2018-12-28T07:46:16Z</time>
      </trkpt>
      <trkpt lat="35.616100" lon="-112.084610">
        <ele>1849.780</ele>
        <time>2018-12-28T07:46:36Z</time>
      </trkpt>
      <trkpt lat="35.616140" lon="-112.084740">
        <ele>1849.595</ele>
        <time>2018-12-28T07:46:56Z</time>
      </trkpt>
      <trkpt lat="35.616180" lon="-112.084900">
        <ele>1849.326</ele>
        <time>2018-12-28T07:47:16Z</time>
      </trkpt>
      <trkpt lat="35.616240" lon="-112.085130">
        <ele>1849.031</ele>
        <time>2018-12-28T07:47:36Z</time>
      </trkpt>
      <trkpt lat="35.616270" lon="-112.085260">
        <ele>1848.821</ele>
        <time>2018-12-28T07:47:56Z</time>
      </trkpt>
      <trkpt lat="35.616360" lon="-112.085580">
        <ele>1848.453</ele>
        <time>2018-12-28T07:48:16Z</time>
      </trkpt>
      <trkpt lat="35.616790" lon="-112.087210">
        <ele>1848.287</ele>
        <time>2018-12-28T07:48:36Z</time>
      </trkpt>
      <trkpt lat="35.616850" lon="-112.087430">
        <ele>1848.265</ele>
        <time>2018-12-28T07:48:56Z</time>
      </trkpt>
      <trkpt lat="35.616920" lon="-112.087680">
        <ele>1848.268</ele>
        <time>2018-12-28T07:49:16Z</time>
      </trkpt>
      <trkpt lat="35.616980" lon="-112.087940">
        <ele>1848.214</ele>
        <time>2018-12-28T07:49:36Z</time>
      </trkpt>
      <trkpt lat="35.617060" lon="-112.088220">
        <ele>1848.008</ele>
        <time>2018-12-28T07:49:56Z</time>
      </trkpt>
      <trkpt lat="35.617120" lon="-112.088450">
        <ele>1848.069</ele>
        <time>2018-12-28T07:50:16Z</time>
      </trkpt>
      <trkpt lat="35.617190" lon="-112.088720">
        <ele>1848.117</ele>
        <time>2018-12-28T07:50:36Z</time>
      </trkpt>
      <trkpt lat="35.617270" lon="-112.088990">
        <ele>1848.132</ele>
        <time>2018-12-28T07:50:56Z</time>
      </trkpt>
      <trkpt lat="35.617360" lon="-112.089340">
        <ele>1848.133</ele>
        <time>2018-12-28T07:51:16Z</time>
      </trkpt>
      <trkpt lat="35.617430" lon="-112.089610">
        <ele>1848.048</ele>
        <time>2018-12-28T07:51:36Z</time>
      </trkpt>
      <trkpt lat="35.617500" lon="-112.089880">
        <ele>1848.248</ele>
        <time>2018-12-28T07:51:56Z</time>
      </trkpt>
      <trkpt lat="35.617530" lon="-112.090000">
        <ele>1848.210</ele>
        <time>2018-12-28T07:52:16Z</time>
      </trkpt>
      <trkpt lat="35.617560" lon="-112.090100">
        <ele>1848.384</ele>
        <time>2018-12-28T07:52:36Z</time>
      </trkpt>
      <trkpt lat="35.617590" lon="-112.090230">
        <ele>1848.473</ele>
        <time>2018-12-28T07:52:56Z</time>
      </trkpt>
      <trkpt lat="35.617670" lon="-112.090500">
        <ele>1848.685</ele>
        <time>2018-12-28T07:53:16Z</time>
      </trkpt>
      <trkpt lat="35.617710" lon="-112.090680">
        <ele>1848.713</ele>
        <time>2018-12-28T07:53:36Z</time>
      </trkpt>
      <trkpt lat="35.617760" lon="-112.090870">
        <ele>1848.808</ele>
        <time>2018-12-28T07:53:56Z</time>
      </trkpt>
      <trkpt lat="35.617830" lon="-112.091110">
        <ele>1849.030</ele>
        <time>2018-12-28T07:54:16Z</time>
      </trkpt>
      <trkpt lat="35.617870" lon="-112.091290">
        <ele>1849.078</ele>
        <time>2018-12-28T07:54:36Z</time>
      </trkpt>
      <trkpt lat="35.617920" lon="-112.091470">
        <ele>1849.163</ele>
        <time>2018-12-28T07:54:56Z</time>
      </trkpt>
      <trkpt lat="35.617970" lon="-112.091640">
        <ele>1849.274</ele>
        <time>2018-12-28T07:55:16Z</time>
      </trkpt>
      <trkpt lat="35.618070" lon="-112.092020">
        <ele>1849.389</ele>
        <time>2018-12-28T07:55:36Z</time>
      </trkpt>
      <trkpt lat="35.618170" lon="-112.092400">
        <ele>1849.469</ele>
        <time>2018-12-28T07:55:56Z</time>
      </trkpt>
      <trkpt lat="35.618220" lon="-112.092630">
        <ele>1849.541</ele>
        <time>2018-12-28T07:56:16Z</time>
      </trkpt>
      <trkpt lat="35.618310" lon="-112.092960">
        <ele>1849.645</ele>
        <time>2018-12-28T07:56:36Z</time>
      </trkpt>
      <trkpt lat="35.618410" lon="-112.093330">
        <ele>1849.785</ele>
        <time>2018-12-28T07:56:56Z</time>
      </trkpt>
      <trkpt lat="35.618500" lon="-112.093700">
        <ele>1849.889</ele>
        <time>2018-12-28T07:57:16Z</time>
      </trkpt>
      <trkpt lat="35.618600" lon="-112.094090">
        <ele>1849.917</ele>
        <time>2018-12-28T07:57:36Z</time>
      </trkpt>
      <trkpt lat="35.618670" lon="-112.094360">
        <ele>1850.008</ele>
        <time>2018-12-28T07:57:56Z</time>
      </trkpt>
      <trkpt lat="35.618840" lon="-112.094980">
        <ele>1850.151</ele>
        <time>2018-12-28T07:58:16Z</time>
      </trkpt>
      <trkpt lat="35.618940" lon="-112.095370">
        <ele>1850.119</ele>
        <time>2018-12-28T07:58:36Z</time>
      </trkpt>
      <trkpt lat="35.619050" lon="-112.095800">
        <ele>1849.884</ele>
        <time>2018-12-28T07:58:56Z</time>
      </trkpt>
      <trkpt lat="35.619130" lon="-112.096090">
        <ele>1849.875</ele>
        <time>2018-12-28T07:59:16Z</time>
      </trkpt>
      <trkpt lat="35.619310" lon="-112.096760">
        <ele>1850.230</ele>
        <time>2018-12-28T07:59:36Z</time>
      </trkpt>
      <trkpt lat="35.619450" lon="-112.097270">
        <ele>1850.330</ele>
        <time>2018-12-28T07:59:56Z</time>
      </trkpt>
      <trkpt lat="35.619580" lon="-112.097760">
        <ele>1850.292</ele>
        <time>2018-12-28T08:00:16Z</time>
      </trkpt>
      <trkpt lat="35.619680" lon="-112.098150">
        <ele>1850.086</ele>
        <time>2018-12-28T08:00:36Z</time>
      </trkpt>
      <trkpt lat="35.619780" lon="-112.098520">
        <ele>1849.987</ele>
        <time>2018-12-28T08:00:56Z</time>
      </trkpt>
      <trkpt lat="35.619880" lon="-112.098910">
        <ele>1850.042</ele>
        <time>2018-12-28T08:01:16Z</time>
      </trkpt>
      <trkpt lat="35.619990" lon="-112.099300">
        <ele>1850.326</ele>
        <time>2018-12-28T08:01:36Z</time>
      </trkpt>
      <trkpt lat="35.620060" lon="-112.099570">
        <ele>1850.508</ele>
        <time>2018-12-28T08:01:56Z</time>
      </trkpt>
      <trkpt lat="35.620150" lon="-112.099930">
        <ele>1850.391</ele>
        <time>2018-12-28T08:02:16Z</time>
      </trkpt>
      <trkpt lat="35.620250" lon="-112.100320">
        <ele>1850.089</ele>
        <time>2018-12-28T08:02:36Z</time>
      </trkpt>
      <trkpt lat="35.620360" lon="-112.100710">
        <ele>1850.044</ele>
        <time>2018-12-28T08:02:56Z</time>
      </trkpt>
      <trkpt lat="35.620460" lon="-112.101100">
        <ele>1849.975</ele>
        <time>2018-12-28T08:03:16Z</time>
      </trkpt>
      <trkpt lat="35.620660" lon="-112.101860">
        <ele>1850.130</ele>
        <time>2018-12-28T08:03:36Z</time>
      </trkpt>
      <trkpt lat="35.620760" lon="-112.102240">
        <ele>1850.180</ele>
        <time>2018-12-28T08:03:56Z</time>
      </trkpt>
      <trkpt lat="35.620830" lon="-112.102490">
        <ele>1850.112</ele>
        <time>2018-12-28T08:04:16Z</time>
      </trkpt>
      <trkpt lat="35.620900" lon="-112.102750">
        <ele>1850.156</ele>
        <time>2018-12-28T08:04:36Z</time>
      </trkpt>
      <trkpt lat="35.621080" lon="-112.103460">
        <ele>1849.949</ele>
        <time>2018-12-28T08:04:56Z</time>
      </trkpt>
      <trkpt lat="35.621230" lon="-112.104030">
        <ele>1850.002</ele>
        <time>2018-12-28T08:05:16Z</time>
      </trkpt>
      <trkpt lat="35.621330" lon="-112.104380">
        <ele>1850.022</ele>
        <time>2018-12-28T08:05:36Z</time>
      </trkpt>
      <trkpt lat="35.621370" lon="-112.104550">
        <ele>1849.908</ele>
        <time>2018-12-28T08:05:56Z</time>
      </trkpt>
      <trkpt lat="35.621440" lon="-112.104800">
        <ele>1849.827</ele>
        <time>2018-12-28T08:06:16Z</time>
      </trkpt>
      <trkpt lat="35.621480" lon="-112.104930">
        <ele>1849.845</ele>
        <time>2018-12-28T08:06:36Z</time>
      </trkpt>
      <trkpt lat="35.621510" lon="-112.105060">
        <ele>1849.850</ele>
        <time>2018-12-28T08:06:56Z</time>
      </trkpt>
      <trkpt lat="35.621550" lon="-112.105190">
        <ele>1849.881</ele>
        <time>2018-12-28T08:07:16Z</time>
      </trkpt>
      <trkpt lat="35.621590" lon="-112.105320">
        <ele>1849.996</ele>
        <time>2018-12-28T08:07:36Z</time>
      </trkpt>
      <trkpt lat="35.621670" lon="-112.105560">
        <ele>1849.926</ele>
        <time>2018-12-28T08:07:56Z</time>
      </trkpt>
      <trkpt lat="35.621700" lon="-112.105680">
        <ele>1849.978</ele>
        <time>2018-12-28T08:08:16Z</time>
      </trkpt>
      <trkpt lat="35.621740" lon="-112.105810">
        <ele>1850.022</ele>
        <time>2018-12-28T08:08:36Z</time>
      </trkpt>
      <trkpt lat="35.621790" lon="-112.105930">
        <ele>1850.122</ele>
        <time>2018-12-28T08:08:56Z</time>
      </trkpt>
      <trkpt lat="35.621830" lon="-112.106050">
        <ele>1850.262</ele>
        <time>2018-12-28T08:09:16Z</time>
      </trkpt>
      <trkpt lat="35.621870" lon="-112.106180">
        <ele>1850.408</ele>
        <time>2018-12-28T08:09:36Z</time>
      </trkpt>
      <trkpt lat="35.621910" lon="-112.106300">
        <ele>1850.608</ele>
        <time>2018-12-28T08:09:56Z</time>
      </trkpt>
      <trkpt lat="35.621960" lon="-112.106420">
        <ele>1850.715</ele>
        <time>2018-12-28T08:10:16Z</time>
      </trkpt>
      <trkpt lat="35.622000" lon="-112.106550">
        <ele>1850.873</ele>
        <time>2018-12-28T08:10:36Z</time>
      </trkpt>
      <trkpt lat="35.622040" lon="-112.106650">
        <ele>1850.748</ele>
        <time>2018-12-28T08:10:56Z</time>
      </trkpt>
      <trkpt lat="35.622090" lon="-112.106790">
        <ele>1850.649</ele>
        <time>2018-12-28T08:11:16Z</time>
      </trkpt>
      <trkpt lat="35.622180" lon="-112.107030">
        <ele>1850.294</ele>
        <time>2018-12-28T08:11:36Z</time>
      </trkpt>
      <trkpt lat="35.622260" lon="-112.107230">
        <ele>1850.194</ele>
        <time>2018-12-28T08:11:56Z</time>
      </trkpt>
      <trkpt lat="35.622310" lon="-112.107340">
        <ele>1850.146</ele>
        <time>2018-12-28T08:12:16Z</time>
      </trkpt>
      <trkpt lat="35.622430" lon="-112.107630">
        <ele>1850.380</ele>
        <time>2018-12-28T08:12:36Z</time>
      </trkpt>
      <trkpt lat="35.622490" lon="-112.107760">
        <ele>1850.397</ele>
        <time>2018-12-28T08:12:56Z</time>
      </trkpt>
      <trkpt lat="35.622630" lon="-112.108080">
        <ele>1850.423</ele>
        <time>2018-12-28T08:13:16Z</time>
      </trkpt>
      <trkpt lat="35.622700" lon="-112.108220">
        <ele>1850.425</ele>
        <time>2018-12-28T08:13:36Z</time>
      </trkpt>
      <trkpt lat="35.622760" lon="-112.108350">
        <ele>1850.308</ele>
        <time>2018-12-28T08:13:56Z</time>
      </trkpt>
      <trkpt lat="35.622860" lon="-112.108570">
        <ele>1850.352</ele>
        <time>2018-12-28T08:14:16Z</time>
      </trkpt>
      <trkpt lat="35.622920" lon="-112.108680">
        <ele>1850.370</ele>
        <time>2018-12-28T08:14:36Z</time>
      </trkpt>
      <trkpt lat="35.622980" lon="-112.108810">
        <ele>1850.585</ele>
        <time>2018-12-28T08:14:56Z</time>
      </trkpt>
      <trkpt lat="35.623050" lon="-112.108930">
        <ele>1850.636</ele>
        <time>2018-12-28T08:15:16Z</time>
      </trkpt>
      <trkpt lat="35.623160" lon="-112.109150">
        <ele>1850.861</ele>
        <time>2018-12-28T08:15:36Z</time>
      </trkpt>
      <trkpt lat="35.623280" lon="-112.109370">
        <ele>1850.971</ele>
        <time>2018-12-28T08:15:56Z</time>
      </trkpt>
      <trkpt lat="35.623350" lon="-112.109490">
        <ele>1850.943</ele>
        <time>2018-12-28T08:16:16Z</time>
      </trkpt>
      <trkpt lat="35.623410" lon="-112.109600">
        <ele>1850.987</ele>
        <time>2018-12-28T08:16:36Z</time>
      </trkpt>
      <trkpt lat="35.623470" lon="-112.109710">
        <ele>1850.999</ele>
        <time>2018-12-28T08:16:56Z</time>
      </trkpt>
      <trkpt lat="35.623590" lon="-112.109920">
        <ele>1850.907</ele>
        <time>2018-12-28T08:17:16Z</time>
      </trkpt>
      <trkpt lat="35.623720" lon="-112.110130">
        <ele>1850.927</ele>
        <time>2018-12-28T08:17:36Z</time>
      </trkpt>
      <trkpt lat="35.623810" lon="-112.110270">
        <ele>1850.908</ele>
        <time>2018-12-28T08:17:56Z</time>
      </trkpt>
      <trkpt lat="35.623860" lon="-112.110360">
        <ele>1850.942</ele>
        <time>2018-12-28T08:18:16Z</time>
      </trkpt>
      <trkpt lat="35.623950" lon="-112.110500">
        <ele>1850.980</ele>
        <time>2018-12-28T08:18:36Z</time>
      </trkpt>
      <trkpt lat="35.624060" lon="-112.110670">
        <ele>1850.935</ele>
        <time>2018-12-28T08:18:56Z</time>
      </trkpt>
      <trkpt lat="35.624160" lon="-112.110820">
        <ele>1850.826</ele>
        <time>2018-12-28T08:19:16Z</time>
      </trkpt>
      <trkpt lat="35.624220" lon="-112.110910">
        <ele>1850.811</ele>
        <time>2018-12-28T08:19:36Z</time>
      </trkpt>
      <trkpt lat="35.624290" lon="-112.111020">
        <ele>1850.871</ele>
        <time>2018-12-28T08:19:56Z</time>
      </trkpt>
      <trkpt lat="35.624340" lon="-112.111090">
        <ele>1850.863</ele>
        <time>2018-12-28T08:20:16Z</time>
      </trkpt>
      <trkpt lat="35.624410" lon="-112.111190">
        <ele>1850.877</ele>
        <time>2018-12-28T08:20:36Z</time>
      </trkpt>
      <trkpt lat="35.624550" lon="-112.111390">
        <ele>1850.847</ele>
        <time>2018-12-28T08:20:56Z</time>
      </trkpt>
      <trkpt lat="35.624630" lon="-112.111500">
        <ele>1850.829</ele>
        <time>2018-12-28T08:21:16Z</time>
      </trkpt>
      <trkpt lat="35.624690" lon="-112.111590">
        <ele>1850.821</ele>
        <time>2018-12-28T08:21:36Z</time>
      </trkpt>
      <trkpt lat="35.624760" lon="-112.111680">
        <ele>1850.808</ele>
        <time>2018-12-28T08:21:56Z</time>
      </trkpt>
      <trkpt lat="35.624810" lon="-112.111750">
        <ele>1850.817</ele>
        <time>2018-12-28T08:22:16Z</time>
      </trkpt>
      <trkpt lat="35.624930" lon="-112.111900">
        <ele>1850.895</ele>
        <time>2018-12-28T08:22:36Z</time>
      </trkpt>
      <trkpt lat="35.625010" lon="-112.112000">
        <ele>1850.820</ele>
        <time>2018-12-28T08:22:56Z</time>
      </trkpt>
      <trkpt lat="35.625090" lon="-112.112100">
        <ele>1850.821</ele>
        <time>2018-12-28T08:23:16Z</time>
      </trkpt>
      <trkpt lat="35.625230" lon="-112.112280">
        <ele>1850.966</ele>
        <time>2018-12-28T08:23:36Z</time>
      </trkpt>
      <trkpt lat="35.625400" lon="-112.112490">
        <ele>1851.276</ele>
        <time>2018-12-28T08:23:56Z</time>
      </trkpt>
      <trkpt lat="35.625470" lon="-112.112570">
        <ele>1851.298</ele>
        <time>2018-12-28T08:24:16Z</time>
      </trkpt>
      <trkpt lat="35.625620" lon="-112.112740">
        <ele>1851.162</ele>
        <time>2018-12-28T08:24:36Z</time>
      </trkpt>
      <trkpt lat="35.625800" lon="-112.112950">
        <ele>1850.983</ele>
        <time>2018-12-28T08:24:56Z</time>
      </trkpt>
      <trkpt lat="35.625970" lon="-112.113140">
        <ele>1850.725</ele>
        <time>2018-12-28T08:25:16Z</time>
      </trkpt>
      <trkpt lat="35.626110" lon="-112.113280">
        <ele>1850.517</ele>
        <time>2018-12-28T08:25:36Z</time>
      </trkpt>
      <trkpt lat="35.626270" lon="-112.113450">
        <ele>1850.308</ele>
        <time>2018-12-28T08:25:56Z</time>
      </trkpt>
      <trkpt lat="35.626430" lon="-112.113620">
        <ele>1850.371</ele>
        <time>2018-12-28T08:26:16Z</time>
      </trkpt>
      <trkpt lat="35.626660" lon="-112.113840">
        <ele>1850.439</ele>
        <time>2018-12-28T08:26:36Z</time>
      </trkpt>
      <trkpt lat="35.626800" lon="-112.113980">
        <ele>1850.484</ele>
        <time>2018-12-28T08:26:56Z</time>
      </trkpt>
      <trkpt lat="35.627000" lon="-112.114170">
        <ele>1850.155</ele>
        <time>2018-12-28T08:27:16Z</time>
      </trkpt>
      <trkpt lat="35.627230" lon="-112.114380">
        <ele>1849.840</ele>
        <time>2018-12-28T08:27:36Z</time>
      </trkpt>
      <trkpt lat="35.627430" lon="-112.114580">
        <ele>1849.310</ele>
        <time>2018-12-28T08:27:56Z</time>
      </trkpt>
      <trkpt lat="35.627570" lon="-112.114710">
        <ele>1849.132</ele>
        <time>2018-12-28T08:28:16Z</time>
      </trkpt>
      <trkpt lat="35.627680" lon="-112.114810">
        <ele>1849.096</ele>
        <time>2018-12-28T08:28:36Z</time>
      </trkpt>
      <trkpt lat="35.627800" lon="-112.114930">
        <ele>1848.827</ele>
        <time>2018-12-28T08:28:56Z</time>
      </trkpt>
      <trkpt lat="35.627970" lon="-112.115090">
        <ele>1848.668</ele>
        <time>2018-12-28T08:29:16Z</time>
      </trkpt>
      <trkpt lat="35.628150" lon="-112.115260">
        <ele>1848.314</ele>
        <time>2018-12-28T08:29:36Z</time>
      </trkpt>
      <trkpt lat="35.628320" lon="-112.115420">
        <ele>1848.208</ele>
        <time>2018-12-28T08:29:56Z</time>
      </trkpt>
      <trkpt lat="35.628540" lon="-112.115630">
        <ele>1848.315</ele>
        <time>2018-12-28T08:30:16Z</time>
      </trkpt>
      <trkpt lat="35.628700" lon="-112.115770">
        <ele>1848.583</ele>
        <time>2018-12-28T08:30:36Z</time>
      </trkpt>
      <trkpt lat="35.629560" lon="-112.116580">
        <ele>1849.268</ele>
        <time>2018-12-28T08:30:56Z</time>
      </trkpt>
      <trkpt lat="35.629900" lon="-112.116900">
        <ele>1849.179</ele>
        <time>2018-12-28T08:31:16Z</time>
      </trkpt>
      <trkpt lat="35.630170" lon="-112.117160">
        <ele>1848.814</ele>
        <time>2018-12-28T08:31:36Z</time>
      </trkpt>
      <trkpt lat="35.630590" lon="-112.117550">
        <ele>1848.134</ele>
        <time>2018-12-28T08:31:56Z</time>
      </trkpt>
      <trkpt lat="35.630780" lon="-112.117730">
        <ele>1847.886</ele>
        <time>2018-12-28T08:32:16Z</time>
      </trkpt>
      <trkpt lat="35.631550" lon="-112.118450">
        <ele>1846.680</ele>
        <time>2018-12-28T08:32:36Z</time>
      </trkpt>
      <trkpt lat="35.631720" lon="-112.118610">
        <ele>1846.496</ele>
        <time>2018-12-28T08:32:56Z</time>
      </trkpt>
      <trkpt lat="35.631990" lon="-112.118870">
        <ele>1846.131</ele>
        <time>2018-12-28T08:33:16Z</time>
      </trkpt>
      <trkpt lat="35.632160" lon="-112.119030">
        <ele>1845.924</ele>
        <time>2018-12-28T08:33:36Z</time>
      </trkpt>
      <trkpt lat="35.632330" lon="-112.119190">
        <ele>1845.608</ele>
        <time>2018-12-28T08:33:56Z</time>
      </trkpt>
      <trkpt lat="35.632600" lon="-112.119450">
        <ele>1845.372</ele>
        <time>2018-12-28T08:34:16Z</time>
      </trkpt>
      <trkpt lat="35.632910" lon="-112.119740">
        <ele>1844.810</ele>
        <time>2018-12-28T08:34:36Z</time>
      </trkpt>
      <trkpt lat="35.633610" lon="-112.120400">
        <ele>1843.645</ele>
        <time>2018-12-28T08:34:56Z</time>
      </trkpt>
      <trkpt lat="35.633790" lon="-112.120570">
        <ele>1843.256</ele>
        <time>2018-12-28T08:35:16Z</time>
      </trkpt>
      <trkpt lat="35.633990" lon="-112.120760">
        <ele>1842.721</ele>
        <time>2018-12-28T08:35:36Z</time>
      </trkpt>
      <trkpt lat="35.634240" lon="-112.121000">
        <ele>1842.441</ele>
        <time>2018-12-28T08:35:56Z</time>
      </trkpt>
      <trkpt lat="35.634410" lon="-112.121160">
        <ele>1842.373</ele>
        <time>2018-12-28T08:36:16Z</time>
      </trkpt>
      <trkpt lat="35.634600" lon="-112.121340">
        <ele>1842.297</ele>
        <time>2018-12-28T08:36:36Z</time>
      </trkpt>
      <trkpt lat="35.634850" lon="-112.121580">
        <ele>1842.162</ele>
        <time>2018-12-28T08:36:56Z</time>
      </trkpt>
      <trkpt lat="35.635140" lon="-112.121850">
        <ele>1842.083</ele>
        <time>2018-12-28T08:37:16Z</time>
      </trkpt>
      <trkpt lat="35.635460" lon="-112.122150">
        <ele>1841.711</ele>
        <time>2018-12-28T08:37:36Z</time>
      </trkpt>
      <trkpt lat="35.635720" lon="-112.122400">
        <ele>1841.208</ele>
        <time>2018-12-28T08:37:56Z</time>
      </trkpt>
      <trkpt lat="35.636150" lon="-112.122810">
        <ele>1840.379</ele>
        <time>2018-12-28T08:38:16Z</time>
      </trkpt>
      <trkpt lat="35.636410" lon="-112.123060">
        <ele>1839.717</ele>
        <time>2018-12-28T08:38:36Z</time>
      </trkpt>
      <trkpt lat="35.636670" lon="-112.123310">
        <ele>1839.112</ele>
        <time>2018-12-28T08:38:56Z</time>
      </trkpt>
      <trkpt lat="35.636930" lon="-112.123560">
        <ele>1838.533</ele>
        <time>2018-12-28T08:39:16Z</time>
      </trkpt>
      <trkpt lat="35.637190" lon="-112.123810">
        <ele>1838.098</ele>
        <time>2018-12-28T08:39:36Z</time>
      </trkpt>
      <trkpt lat="35.637450" lon="-112.124050">
        <ele>1837.778</ele>
        <time>2018-12-28T08:39:56Z</time>
      </trkpt>
      <trkpt lat="35.637700" lon="-112.124270">
        <ele>1837.440</ele>
        <time>2018-12-28T08:40:16Z</time>
      </trkpt>
      <trkpt lat="35.638610" lon="-112.125140">
        <ele>1836.134</ele>
        <time>2018-12-28T08:40:36Z</time>
      </trkpt>
      <trkpt lat="35.639110" lon="-112.125610">
        <ele>1836.353</ele>
        <time>2018-12-28T08:40:56Z</time>
      </trkpt>
      <trkpt lat="35.639290" lon="-112.125780">
        <ele>1836.304</ele>
        <time>2018-12-28T08:41:16Z</time>
      </trkpt>
      <trkpt lat="35.639540" lon="-112.126030">
        <ele>1836.214</ele>
        <time>2018-12-28T08:41:36Z</time>
      </trkpt>
      <trkpt lat="35.639720" lon="-112.126190">
        <ele>1836.108</ele>
        <time>2018-12-28T08:41:56Z</time>
      </trkpt>
      <trkpt lat="35.639890" lon="-112.126360">
        <ele>1835.918</ele>
        <time>2018-12-28T08:42:16Z</time>
      </trkpt>
      <trkpt lat="35.640070" lon="-112.126520">
        <ele>1835.726</ele>
        <time>2018-12-28T08:42:36Z</time>
      </trkpt>
      <trkpt lat="35.640150" lon="-112.126600">
        <ele>1835.651</ele>
        <time>2018-12-28T08:42:56Z</time>
      </trkpt>
      <trkpt lat="35.640870" lon="-112.127270">
        <ele>1834.232</ele>
        <time>2018-12-28T08:43:16Z</time>
      </trkpt>
      <trkpt lat="35.642070" lon="-112.128410">
        <ele>1833.897</ele>
        <time>2018-12-28T08:43:36Z</time>
      </trkpt>
      <trkpt lat="35.642250" lon="-112.128580">
        <ele>1833.777</ele>
        <time>2018-12-28T08:43:56Z</time>
      </trkpt>
      <trkpt lat="35.642510" lon="-112.128830">
        <ele>1833.759</ele>
        <time>2018-12-28T08:44:16Z</time>
      </trkpt>
      <trkpt lat="35.642690" lon="-112.129000">
        <ele>1833.763</ele>
        <time>2018-12-28T08:44:36Z</time>
      </trkpt>
      <trkpt lat="35.642940" lon="-112.129240">
        <ele>1833.666</ele>
        <time>2018-12-28T08:44:56Z</time>
      </trkpt>
      <trkpt lat="35.643070" lon="-112.129360">
        <ele>1833.429</ele>
        <time>2018-12-28T08:45:16Z</time>
      </trkpt>
      <trkpt lat="35.643210" lon="-112.129490">
        <ele>1833.321</ele>
        <time>2018-12-28T08:45:36Z</time>
      </trkpt>
      <trkpt lat="35.643730" lon="-112.129980">
        <ele>1832.708</ele>
        <time>2018-12-28T08:45:56Z</time>
      </trkpt>
      <trkpt lat="35.644190" lon="-112.130430">
        <ele>1832.359</ele>
        <time>2018-12-28T08:46:16Z</time>
      </trkpt>
      <trkpt lat="35.645570" lon="-112.131710">
        <ele>1831.357</ele>
        <time>2018-12-28T08:46:36Z</time>
      </trkpt>
      <trkpt lat="35.647510" lon="-112.133550">
        <ele>1830.062</ele>
        <time>2018-12-28T08:46:56Z</time>
      </trkpt>
      <trkpt lat="35.647770" lon="-112.133810">
        <ele>1829.913</ele>
        <time>2018-12-28T08:47:16Z</time>
      </trkpt>
      <trkpt lat="35.648390" lon="-112.134390">
        <ele>1829.548</ele>
        <time>2018-12-28T08:47:36Z</time>
      </trkpt>
      <trkpt lat="35.648710" lon="-112.134690">
        <ele>1829.388</ele>
        <time>2018-12-28T08:47:56Z</time>
      </trkpt>
      <trkpt lat="35.648960" lon="-112.134930">
        <ele>1829.220</ele>
        <time>2018-12-28T08:48:16Z</time>
      </trkpt>
      <trkpt lat="35.649110" lon="-112.135080">
        <ele>1829.144</ele>
        <time>2018-12-28T08:48:36Z</time>
      </trkpt>
      <trkpt lat="35.649290" lon="-112.135240">
        <ele>1828.976</ele>
        <time>2018-12-28T08:48:56Z</time>
      </trkpt>
      <trkpt lat="35.649580" lon="-112.135510">
        <ele>1828.790</ele>
        <time>2018-12-28T08:49:16Z</time>
      </trkpt>
      <trkpt lat="35.649680" lon="-112.135600">
        <ele>1828.719</ele>
        <time>2018-12-28T08:49:36Z</time>
      </trkpt>
      <trkpt lat="35.649860" lon="-112.135780">
        <ele>1828.608</ele>
        <time>2018-12-28T08:49:56Z</time>
      </trkpt>
      <trkpt lat="35.650170" lon="-112.136080">
        <ele>1828.360</ele>
        <time>2018-12-28T08:50:16Z</time>
      </trkpt>
      <trkpt lat="35.650390" lon="-112.136280">
        <ele>1828.388</ele>
        <time>2018-12-28T08:50:36Z</time>
      </trkpt>
      <trkpt lat="35.650570" lon="-112.136450">
        <ele>1828.193</ele>
        <time>2018-12-28T08:50:56Z</time>
      </trkpt>
      <trkpt lat="35.650840" lon="-112.136700">
        <ele>1828.064</ele>
        <time>2018-12-28T08:51:16Z</time>
      </trkpt>
      <trkpt lat="35.651000" lon="-112.136860">
        <ele>1827.949</ele>
        <time>2018-12-28T08:51:36Z</time>
      </trkpt>
      <trkpt lat="35.651110" lon="-112.136960">
        <ele>1827.959</ele>
        <time>2018-12-28T08:51:56Z</time>
      </trkpt>
      <trkpt lat="35.651310" lon="-112.137150">
        <ele>1827.771</ele>
        <time>2018-12-28T08:52:16Z</time>
      </trkpt>
      <trkpt lat="35.651430" lon="-112.137260">
        <ele>1827.645</ele>
        <time>2018-12-28T08:52:36Z</time>
      </trkpt>
      <trkpt lat="35.651470" lon="-112.137300">
        <ele>1827.674</ele>
        <time>2018-12-28T08:52:56Z</time>
      </trkpt>
      <trkpt lat="35.651510" lon="-112.137340">
        <ele>1827.656</ele>
        <time>2018-12-28T08:53:16Z</time>
      </trkpt>
      <trkpt lat="35.651540" lon="-112.137370">
        <ele>1827.621</ele>
        <time>2018-12-28T08:53:36Z</time>
      </trkpt>
      <trkpt lat="35.651570" lon="-112.137400">
        <ele>1827.508</ele>
        <time>2018-12-28T08:53:56Z</time>
      </trkpt>
      <trkpt lat="35.651590" lon="-112.137420">
        <ele>1827.560</ele>
        <time>2018-12-28T08:54:16Z</time>
      </trkpt>
      <trkpt lat="35.651610" lon="-112.137450">
        <ele>1827.548</ele>
        <time>2018-12-28T08:54:36Z</time>
      </trkpt>
      <trkpt lat="35.651630" lon="-112.137480">
        <ele>1827.553</ele>
        <time>2018-12-28T08:54:56Z</time>
      </trkpt>
      <trkpt lat="35.651650" lon="-112.137510">
        <ele>1827.514</ele>
        <time>2018-12-28T08:55:16Z</time>
      </trkpt>
      <trkpt lat="35.651680" lon="-112.137550">
        <ele>1827.549</ele>
        <time>2018-12-28T08:55:36Z</time>
      </trkpt>
      <trkpt lat="35.651710" lon="-112.137590">
        <ele>1827.459</ele>
        <time>2018-12-28T08:55:56Z</time>
      </trkpt>
      <trkpt lat="35.651740" lon="-112.137640">
        <ele>1827.461</ele>
        <time>2018-12-28T08:56:16Z</time>
      </trkpt>
      <trkpt lat="35.651770" lon="-112.137690">
        <ele>1827.455</ele>
        <time>2018-12-28T08:56:36Z</time>
      </trkpt>
      <trkpt lat="35.651800" lon="-112.137740">
        <ele>1827.498</ele>
        <time>2018-12-28T08:56:56Z</time>
      </trkpt>
      <trkpt lat="35.651820" lon="-112.137780">
        <ele>1827.415</ele>
        <time>2018-12-28T08:57:16Z</time>
      </trkpt>
      <trkpt lat="35.651830" lon="-112.137810">
        <ele>1827.326</ele>
        <time>2018-12-28T08:57:36Z</time>
      </trkpt>
      <trkpt lat="35.651850" lon="-112.137840">
        <ele>1827.308</ele>
        <time>2018-12-28T08:57:56Z</time>
      </trkpt>
      <trkpt lat="35.651860" lon="-112.137880">
        <ele>1827.342</ele>
        <time>2018-12-28T08:58:16Z</time>
      </trkpt>
      <trkpt lat="35.651870" lon="-112.137900">
        <ele>1827.310</ele>
        <time>2018-12-28T08:58:36Z</time>
      </trkpt>
      <trkpt lat="35.651880" lon="-112.137910">
        <ele>1827.365</ele>
        <time>2018-12-28T08:58:56Z</time>
      </trkpt>
      <trkpt lat="35.651880" lon="-112.137930">
        <ele>1827.346</ele>
        <time>2018-12-28T08:59:16Z</time>
      </trkpt>
      <trkpt lat="35.651890" lon="-112.137940">
        <ele>1827.371</ele>
        <time>2018-12-28T08:59:36Z</time>
      </trkpt>
      <trkpt lat="35.651900" lon="-112.137960">
        <ele>1827.351</ele>
        <time>2018-12-28T08:59:56Z</time>
      </trkpt>
      <trkpt lat="35.651900" lon="-112.137980">
        <ele>1827.333</ele>
        <time>2018-12-28T09:00:16Z</time>
      </trkpt>
      <trkpt lat="35.651910" lon="-112.138010">
        <ele>1827.327</ele>
        <time>2018-12-28T09:00:36Z</time>
      </trkpt>
      <trkpt lat="35.651920" lon="-112.138030">
        <ele>1827.354</ele>
        <time>2018-12-28T09:00:56Z</time>
      </trkpt>
      <trkpt lat="35.651930" lon="-112.138050">
        <ele>1827.356</ele>
        <time>2018-12-28T09:01:16Z</time>
      </trkpt>
      <trkpt lat="35.651930" lon="-112.138080">
        <ele>1827.211</ele>
        <time>2018-12-28T09:01:36Z</time>
      </trkpt>
      <trkpt lat="35.651940" lon="-112.138110">
        <ele>1827.208</ele>
        <time>2018-12-28T09:01:56Z</time>
      </trkpt>
      <trkpt lat="35.651950" lon="-112.138140">
        <ele>1827.298</ele>
        <time>2018-12-28T09:02:16Z</time>
      </trkpt>
      <trkpt lat="35.651960" lon="-112.138190">
        <ele>1827.286</ele>
        <time>2018-12-28T09:02:36Z</time>
      </trkpt>
      <trkpt lat="35.651970" lon="-112.138230">
        <ele>1827.211</ele>
        <time>2018-12-28T09:02:56Z</time>
      </trkpt>
      <trkpt lat="35.651970" lon="-112.138270">
        <ele>1827.262</ele>
        <time>2018-12-28T09:03:16Z</time>
      </trkpt>
      <trkpt lat="35.651980" lon="-112.138310">
        <ele>1827.267</ele>
        <time>2018-12-28T09:03:36Z</time>
      </trkpt>
      <trkpt lat="35.651990" lon="-112.138370">
        <ele>1827.197</ele>
        <time>2018-12-28T09:03:56Z</time>
      </trkpt>
      <trkpt lat="35.652000" lon="-112.138450">
        <ele>1827.159</ele>
        <time>2018-12-28T09:04:16Z</time>
      </trkpt>
      <trkpt lat="35.652010" lon="-112.138510">
        <ele>1827.143</ele>
        <time>2018-12-28T09:04:36Z</time>
      </trkpt>
      <trkpt lat="35.652020" lon="-112.138600">
        <ele>1827.144</ele>
        <time>2018-12-28T09:04:56Z</time>
      </trkpt>
      <trkpt lat="35.652020" lon="-112.138650">
        <ele>1827.105</ele>
        <time>2018-12-28T09:05:16Z</time>
      </trkpt>
      <trkpt lat="35.652070" lon="-112.139070">
        <ele>1827.015</ele>
        <time>2018-12-28T09:05:36Z</time>
      </trkpt>
      <trkpt lat="35.652100" lon="-112.139460">
        <ele>1826.908</ele>
        <time>2018-12-28T09:05:56Z</time>
      </trkpt>
      <trkpt lat="35.652101" lon="-112.139459">
        <ele>1826.927</ele>
        <time>2018-12-28T09:06:16Z</time>
      </trkpt>
      <trkpt lat="35.652540" lon="-112.139400">
        <ele>1826.895</ele>
        <time>2018-12-28T09:06:36Z</time>
      </trkpt>
      <trkpt lat="35.652630" lon="-112.139390">
        <ele>1826.770</ele>
        <time>2018-12-28T09:06:56Z</time>
      </trkpt>
      <trkpt lat="35.652980" lon="-112.139340">
        <ele>1826.621</ele>
        <time>2018-12-28T09:07:16Z</time>
      </trkpt>
      <trkpt lat="35.653330" lon="-112.139290">
        <ele>1826.616</ele>
        <time>2018-12-28T09:07:36Z</time>
      </trkpt>
      <trkpt lat="35.653600" lon="-112.139260">
        <ele>1826.546</ele>
        <time>2018-12-28T09:07:56Z</time>
      </trkpt>
      <trkpt lat="35.653770" lon="-112.139240">
        <ele>1826.568</ele>
        <time>2018-12-28T09:08:16Z</time>
      </trkpt>
      <trkpt lat="35.654760" lon="-112.139100">
        <ele>1826.272</ele>
        <time>2018-12-28T09:08:36Z</time>
      </trkpt>
      <trkpt lat="35.654970" lon="-112.139070">
        <ele>1826.145</ele>
        <time>2018-12-28T09:08:56Z</time>
      </trkpt>
      <trkpt lat="35.655440" lon="-112.139030">
        <ele>1825.947</ele>
        <time>2018-12-28T09:09:16Z</time>
      </trkpt>
      <trkpt lat="35.656130" lon="-112.138930">
        <ele>1825.911</ele>
        <time>2018-12-28T09:09:36Z</time>
      </trkpt>
      <trkpt lat="35.656570" lon="-112.138850">
        <ele>1825.808</ele>
        <time>2018-12-28T09:09:56Z</time>
      </trkpt>
      <trkpt lat="35.657070" lon="-112.138790">
        <ele>1825.757</ele>
        <time>2018-12-28T09:10:16Z</time>
      </trkpt>
      <trkpt lat="35.657410" lon="-112.138740">
        <ele>1825.885</ele>
        <time>2018-12-28T09:10:36Z</time>
      </trkpt>
      <trkpt lat="35.657920" lon="-112.138670">
        <ele>1825.670</ele>
        <time>2018-12-28T09:10:56Z</time>
      </trkpt>
      <trkpt lat="35.658700" lon="-112.138560">
        <ele>1825.421</ele>
        <time>2018-12-28T09:11:16Z</time>
      </trkpt>
      <trkpt lat="35.658810" lon="-112.138550">
        <ele>1825.456</ele>
        <time>2018-12-28T09:11:36Z</time>
      </trkpt>
      <trkpt lat="35.659250" lon="-112.138490">
        <ele>1825.416</ele>
        <time>2018-12-28T09:11:56Z</time>
      </trkpt>
      <trkpt lat="35.659300" lon="-112.138480">
        <ele>1825.588</ele>
        <time>2018-12-28T09:12:16Z</time>
      </trkpt>
      <trkpt lat="35.659620" lon="-112.138440">
        <ele>1825.422</ele>
        <time>2018-12-28T09:12:36Z</time>
      </trkpt>
      <trkpt lat="35.659880" lon="-112.138400">
        <ele>1825.319</ele>
        <time>2018-12-28T09:12:56Z</time>
      </trkpt>
      <trkpt lat="35.660440" lon="-112.138330">
        <ele>1824.909</ele>
        <time>2018-12-28T09:13:16Z</time>
      </trkpt>
      <trkpt lat="35.660910" lon="-112.138270">
        <ele>1824.819</ele>
        <time>2018-12-28T09:13:36Z</time>
      </trkpt>
      <trkpt lat="35.661140" lon="-112.138240">
        <ele>1824.708</ele>
        <time>2018-12-28T09:13:56Z</time>
      </trkpt>
      <trkpt lat="35.661480" lon="-112.138190">
        <ele>1824.784</ele>
        <time>2018-12-28T09:14:16Z</time>
      </trkpt>
      <trkpt lat="35.662060" lon="-112.138110">
        <ele>1824.752</ele>
        <time>2018-12-28T09:14:36Z</time>
      </trkpt>
      <trkpt lat="35.662400" lon="-112.138060">
        <ele>1824.877</ele>
        <time>2018-12-28T09:14:56Z</time>
      </trkpt>
      <trkpt lat="35.662640" lon="-112.138030">
        <ele>1824.818</ele>
        <time>2018-12-28T09:15:16Z</time>
      </trkpt>
      <trkpt lat="35.662750" lon="-112.138020">
        <ele>1824.853</ele>
        <time>2018-12-28T09:15:36Z</time>
      </trkpt>
      <trkpt lat="35.662860" lon="-112.138000">
        <ele>1824.813</ele>
        <time>2018-12-28T09:15:56Z</time>
      </trkpt>
      <trkpt lat="35.663090" lon="-112.137970">
        <ele>1824.855</ele>
        <time>2018-12-28T09:16:16Z</time>
      </trkpt>
      <trkpt lat="35.663320" lon="-112.137940">
        <ele>1824.889</ele>
        <time>2018-12-28T09:16:36Z</time>
      </trkpt>
      <trkpt lat="35.663550" lon="-112.137910">
        <ele>1824.888</ele>
        <time>2018-12-28T09:16:56Z</time>
      </trkpt>
      <trkpt lat="35.663780" lon="-112.137880">
        <ele>1824.824</ele>
        <time>2018-12-28T09:17:16Z</time>
      </trkpt>
      <trkpt lat="35.664010" lon="-112.137850">
        <ele>1824.726</ele>
        <time>2018-12-28T09:17:36Z</time>
      </trkpt>
      <trkpt lat="35.664700" lon="-112.137750">
        <ele>1824.508</ele>
        <time>2018-12-28T09:17:56Z</time>
      </trkpt>
      <trkpt lat="35.665050" lon="-112.137710">
        <ele>1824.281</ele>
        <time>2018-12-28T09:18:16Z</time>
      </trkpt>
      <trkpt lat="35.665390" lon="-112.137660">
        <ele>1823.869</ele>
        <time>2018-12-28T09:18:36Z</time>
      </trkpt>
      <trkpt lat="35.665620" lon="-112.137630">
        <ele>1823.674</ele>
        <time>2018-12-28T09:18:56Z</time>
      </trkpt>
      <trkpt lat="35.665740" lon="-112.137610">
        <ele>1823.695</ele>
        <time>2018-12-28T09:19:16Z</time>
      </trkpt>
      <trkpt lat="35.665860" lon="-112.137600">
        <ele>1823.660</ele>
        <time>2018-12-28T09:19:36Z</time>
      </trkpt>
      <trkpt lat="35.665960" lon="-112.137580">
        <ele>1823.620</ele>
        <time>2018-12-28T09:19:56Z</time>
      </trkpt>
      <trkpt lat="35.666180" lon="-112.137550">
        <ele>1823.632</ele>
        <time>2018-12-28T09:20:16Z</time>
      </trkpt>
      <trkpt lat="35.666400" lon="-112.137520">
        <ele>1823.616</ele>
        <time>2018-12-28T09:20:36Z</time>
      </trkpt>
      <trkpt lat="35.666720" lon="-112.137470">
        <ele>1823.624</ele>
        <time>2018-12-28T09:20:56Z</time>
      </trkpt>
      <trkpt lat="35.666950" lon="-112.137440">
        <ele>1823.504</ele>
        <time>2018-12-28T09:21:16Z</time>
      </trkpt>
      <trkpt lat="35.668630" lon="-112.137210">
        <ele>1822.614</ele>
        <time>2018-12-28T09:21:36Z</time>
      </trkpt>
      <trkpt lat="35.669240" lon="-112.137130">
        <ele>1822.508</ele>
        <time>2018-12-28T09:21:56Z</time>
      </trkpt>
      <trkpt lat="35.669470" lon="-112.137100">
        <ele>1822.535</ele>
        <time>2018-12-28T09:22:16Z</time>
      </trkpt>
      <trkpt lat="35.669800" lon="-112.137050">
        <ele>1822.553</ele>
        <time>2018-12-28T09:22:36Z</time>
      </trkpt>
      <trkpt lat="35.670440" lon="-112.136960">
        <ele>1822.428</ele>
        <time>2018-12-28T09:22:56Z</time>
      </trkpt>
      <trkpt lat="35.671300" lon="-112.136840">
        <ele>1822.399</ele>
        <time>2018-12-28T09:23:16Z</time>
      </trkpt>
      <trkpt lat="35.671430" lon="-112.136820">
        <ele>1822.344</ele>
        <time>2018-12-28T09:23:36Z</time>
      </trkpt>
      <trkpt lat="35.671650" lon="-112.136790">
        <ele>1822.244</ele>
        <time>2018-12-28T09:23:56Z</time>
      </trkpt>
      <trkpt lat="35.671970" lon="-112.136750">
        <ele>1822.256</ele>
        <time>2018-12-28T09:24:16Z</time>
      </trkpt>
      <trkpt lat="35.672190" lon="-112.136720">
        <ele>1822.210</ele>
        <time>2018-12-28T09:24:36Z</time>
      </trkpt>
      <trkpt lat="35.672520" lon="-112.136670">
        <ele>1822.289</ele>
        <time>2018-12-28T09:24:56Z</time>
      </trkpt>
      <trkpt lat="35.672720" lon="-112.136650">
        <ele>1822.206</ele>
        <time>2018-12-28T09:25:16Z</time>
      </trkpt>
      <trkpt lat="35.673060" lon="-112.136600">
        <ele>1822.126</ele>
        <time>2018-12-28T09:25:36Z</time>
      </trkpt>
      <trkpt lat="35.673500" lon="-112.136540">
        <ele>1822.108</ele>
        <time>2018-12-28T09:25:56Z</time>
      </trkpt>
      <trkpt lat="35.673830" lon="-112.136500">
        <ele>1822.451</ele>
        <time>2018-12-28T09:26:16Z</time>
      </trkpt>
      <trkpt lat="35.674370" lon="-112.136420">
        <ele>1822.369</ele>
        <time>2018-12-28T09:26:36Z</time>
      </trkpt>
      <trkpt lat="35.674810" lon="-112.136360">
        <ele>1822.354</ele>
        <time>2018-12-28T09:26:56Z</time>
      </trkpt>
      <trkpt lat="35.675370" lon="-112.136280">
        <ele>1822.355</ele>
        <time>2018-12-28T09:27:16Z</time>
      </trkpt>
      <trkpt lat="35.675490" lon="-112.136270">
        <ele>1822.370</ele>
        <time>2018-12-28T09:27:36Z</time>
      </trkpt>
      <trkpt lat="35.675800" lon="-112.136230">
        <ele>1822.320</ele>
        <time>2018-12-28T09:27:56Z</time>
      </trkpt>
      <trkpt lat="35.676350" lon="-112.136150">
        <ele>1822.652</ele>
        <time>2018-12-28T09:28:16Z</time>
      </trkpt>
      <trkpt lat="35.676560" lon="-112.136120">
        <ele>1822.526</ele>
        <time>2018-12-28T09:28:36Z</time>
      </trkpt>
      <trkpt lat="35.676890" lon="-112.136080">
        <ele>1822.492</ele>
        <time>2018-12-28T09:28:56Z</time>
      </trkpt>
      <trkpt lat="35.677220" lon="-112.136030">
        <ele>1822.373</ele>
        <time>2018-12-28T09:29:16Z</time>
      </trkpt>
      <trkpt lat="35.677540" lon="-112.135990">
        <ele>1822.020</ele>
        <time>2018-12-28T09:29:36Z</time>
      </trkpt>
      <trkpt lat="35.677870" lon="-112.135950">
        <ele>1821.808</ele>
        <time>2018-12-28T09:29:56Z</time>
      </trkpt>
      <trkpt lat="35.678650" lon="-112.135840">
        <ele>1821.352</ele>
        <time>2018-12-28T09:30:16Z</time>
      </trkpt>
      <trkpt lat="35.678960" lon="-112.135800">
        <ele>1821.150</ele>
        <time>2018-12-28T09:30:36Z</time>
      </trkpt>
      <trkpt lat="35.679290" lon="-112.135760">
        <ele>1820.675</ele>
        <time>2018-12-28T09:30:56Z</time>
      </trkpt>
      <trkpt lat="35.679840" lon="-112.135690">
        <ele>1820.286</ele>
        <time>2018-12-28T09:31:16Z</time>
      </trkpt>
      <trkpt lat="35.680610" lon="-112.135580">
        <ele>1819.441</ele>
        <time>2018-12-28T09:31:36Z</time>
      </trkpt>
      <trkpt lat="35.680940" lon="-112.135540">
        <ele>1819.391</ele>
        <time>2018-12-28T09:31:56Z</time>
      </trkpt>
      <trkpt lat="35.681040" lon="-112.135520">
        <ele>1819.333</ele>
        <time>2018-12-28T09:32:16Z</time>
      </trkpt>
      <trkpt lat="35.681430" lon="-112.135470">
        <ele>1819.557</ele>
        <time>2018-12-28T09:32:36Z</time>
      </trkpt>
      <trkpt lat="35.681590" lon="-112.135450">
        <ele>1819.666</ele>
        <time>2018-12-28T09:32:56Z</time>
      </trkpt>
      <trkpt lat="35.681810" lon="-112.135420">
        <ele>1819.829</ele>
        <time>2018-12-28T09:33:16Z</time>
      </trkpt>
      <trkpt lat="35.682020" lon="-112.135390">
        <ele>1819.721</ele>
        <time>2018-12-28T09:33:36Z</time>
      </trkpt>
      <trkpt lat="35.682140" lon="-112.135370">
        <ele>1819.708</ele>
        <time>2018-12-28T09:33:56Z</time>
      </trkpt>
      <trkpt lat="35.682250" lon="-112.135350">
        <ele>1819.799</ele>
        <time>2018-12-28T09:34:16Z</time>
      </trkpt>
      <trkpt lat="35.682470" lon="-112.135320">
        <ele>1819.577</ele>
        <time>2018-12-28T09:34:36Z</time>
      </trkpt>
      <trkpt lat="35.682690" lon="-112.135300">
        <ele>1819.422</ele>
        <time>2018-12-28T09:34:56Z</time>
      </trkpt>
      <trkpt lat="35.682900" lon="-112.135270">
        <ele>1819.513</ele>
        <time>2018-12-28T09:35:16Z</time>
      </trkpt>
      <trkpt lat="35.683120" lon="-112.135230">
        <ele>1819.868</ele>
        <time>2018-12-28T09:35:36Z</time>
      </trkpt>
      <trkpt lat="35.683340" lon="-112.135200">
        <ele>1820.098</ele>
        <time>2018-12-28T09:35:56Z</time>
      </trkpt>
      <trkpt lat="35.683560" lon="-112.135170">
        <ele>1819.980</ele>
        <time>2018-12-28T09:36:16Z</time>
      </trkpt>
      <trkpt lat="35.683790" lon="-112.135140">
        <ele>1819.464</ele>
        <time>2018-12-28T09:36:36Z</time>
      </trkpt>
      <trkpt lat="35.684110" lon="-112.135100">
        <ele>1818.677</ele>
        <time>2018-12-28T09:36:56Z</time>
      </trkpt>
      <trkpt lat="35.684430" lon="-112.135060">
        <ele>1818.361</ele>
        <time>2018-12-28T09:37:16Z</time>
      </trkpt>
      <trkpt lat="35.684760" lon="-112.135020">
        <ele>1818.627</ele>
        <time>2018-12-28T09:37:36Z</time>
      </trkpt>
      <trkpt lat="35.685140" lon="-112.134970">
        <ele>1818.808</ele>
        <time>2018-12-28T09:37:56Z</time>
      </trkpt>
      <trkpt lat="35.685410" lon="-112.134930">
        <ele>1819.180</ele>
        <time>2018-12-28T09:38:16Z</time>
      </trkpt>
      <trkpt lat="35.685640" lon="-112.134900">
        <ele>1819.418</ele>
        <time>2018-12-28T09:38:36Z</time>
      </trkpt>
      <trkpt lat="35.685960" lon="-112.134850">
        <ele>1820.133</ele>
        <time>2018-12-28T09:38:56Z</time>
      </trkpt>
      <trkpt lat="35.686190" lon="-112.134820">
        <ele>1820.444</ele>
        <time>2018-12-28T09:39:16Z</time>
      </trkpt>
      <trkpt lat="35.686460" lon="-112.134780">
        <ele>1820.889</ele>
        <time>2018-12-28T09:39:36Z</time>
      </trkpt>
      <trkpt lat="35.686630" lon="-112.134760">
        <ele>1821.129</ele>
        <time>2018-12-28T09:39:56Z</time>
      </trkpt>
      <trkpt lat="35.686950" lon="-112.134710">
        <ele>1821.891</ele>
        <time>2018-12-28T09:40:16Z</time>
      </trkpt>
      <trkpt lat="35.687280" lon="-112.134670">
        <ele>1822.355</ele>
        <time>2018-12-28T09:40:36Z</time>
      </trkpt>
      <trkpt lat="35.687600" lon="-112.134620">
        <ele>1822.444</ele>
        <time>2018-12-28T09:40:56Z</time>
      </trkpt>
      <trkpt lat="35.687800" lon="-112.134590">
        <ele>1822.505</ele>
        <time>2018-12-28T09:41:16Z</time>
      </trkpt>
      <trkpt lat="35.688030" lon="-112.134560">
        <ele>1822.615</ele>
        <time>2018-12-28T09:41:36Z</time>
      </trkpt>
      <trkpt lat="35.688480" lon="-112.134500">
        <ele>1822.608</ele>
        <time>2018-12-28T09:41:56Z</time>
      </trkpt>
      <trkpt lat="35.688920" lon="-112.134440">
        <ele>1822.237</ele>
        <time>2018-12-28T09:42:16Z</time>
      </trkpt>
      <trkpt lat="35.689350" lon="-112.134390">
        <ele>1821.365</ele>
        <time>2018-12-28T09:42:36Z</time>
      </trkpt>
      <trkpt lat="35.689790" lon="-112.134330">
        <ele>1820.580</ele>
        <time>2018-12-28T09:42:56Z</time>
      </trkpt>
      <trkpt lat="35.690010" lon="-112.134300">
        <ele>1820.111</ele>
        <time>2018-12-28T09:43:16Z</time>
      </trkpt>
      <trkpt lat="35.690220" lon="-112.134270">
        <ele>1819.986</ele>
        <time>2018-12-28T09:43:36Z</time>
      </trkpt>
      <trkpt lat="35.690440" lon="-112.134240">
        <ele>1819.796</ele>
        <time>2018-12-28T09:43:56Z</time>
      </trkpt>
      <trkpt lat="35.690770" lon="-112.134200">
        <ele>1819.528</ele>
        <time>2018-12-28T09:44:16Z</time>
      </trkpt>
      <trkpt lat="35.690990" lon="-112.134170">
        <ele>1819.312</ele>
        <time>2018-12-28T09:44:36Z</time>
      </trkpt>
      <trkpt lat="35.691210" lon="-112.134140">
        <ele>1819.228</ele>
        <time>2018-12-28T09:44:56Z</time>
      </trkpt>
      <trkpt lat="35.691640" lon="-112.134080">
        <ele>1819.089</ele>
        <time>2018-12-28T09:45:16Z</time>
      </trkpt>
      <trkpt lat="35.691970" lon="-112.134040">
        <ele>1818.717</ele>
        <time>2018-12-28T09:45:36Z</time>
      </trkpt>
      <trkpt lat="35.692300" lon="-112.133990">
        <ele>1818.608</ele>
        <time>2018-12-28T09:45:56Z</time>
      </trkpt>
      <trkpt lat="35.692730" lon="-112.133940">
        <ele>1818.315</ele>
        <time>2018-12-28T09:46:16Z</time>
      </trkpt>
      <trkpt lat="35.692970" lon="-112.133900">
        <ele>1818.173</ele>
        <time>2018-12-28T09:46:36Z</time>
      </trkpt>
      <trkpt lat="35.693060" lon="-112.133890">
        <ele>1818.088</ele>
        <time>2018-12-28T09:46:56Z</time>
      </trkpt>
      <trkpt lat="35.693180" lon="-112.133870">
        <ele>1817.969</ele>
        <time>2018-12-28T09:47:16Z</time>
      </trkpt>
      <trkpt lat="35.693390" lon="-112.133840">
        <ele>1817.714</ele>
        <time>2018-12-28T09:47:36Z</time>
      </trkpt>
      <trkpt lat="35.693610" lon="-112.133820">
        <ele>1817.594</ele>
        <time>2018-12-28T09:47:56Z</time>
      </trkpt>
      <trkpt lat="35.693940" lon="-112.133770">
        <ele>1817.176</ele>
        <time>2018-12-28T09:48:16Z</time>
      </trkpt>
      <trkpt lat="35.694160" lon="-112.133740">
        <ele>1816.880</ele>
        <time>2018-12-28T09:48:36Z</time>
      </trkpt>
      <trkpt lat="35.694600" lon="-112.133680">
        <ele>1816.324</ele>
        <time>2018-12-28T09:48:56Z</time>
      </trkpt>
      <trkpt lat="35.694820" lon="-112.133650">
        <ele>1816.004</ele>
        <time>2018-12-28T09:49:16Z</time>
      </trkpt>
      <trkpt lat="35.694930" lon="-112.133640">
        <ele>1815.814</ele>
        <time>2018-12-28T09:49:36Z</time>
      </trkpt>
      <trkpt lat="35.695140" lon="-112.133610">
        <ele>1815.508</ele>
        <time>2018-12-28T09:49:56Z</time>
      </trkpt>
      <trkpt lat="35.695360" lon="-112.133580">
        <ele>1815.345</ele>
        <time>2018-12-28T09:50:16Z</time>
      </trkpt>
      <trkpt lat="35.695470" lon="-112.133560">
        <ele>1815.283</ele>
        <time>2018-12-28T09:50:36Z</time>
      </trkpt>
      <trkpt lat="35.695700" lon="-112.133530">
        <ele>1815.218</ele>
        <time>2018-12-28T09:50:56Z</time>
      </trkpt>
      <trkpt lat="35.695910" lon="-112.133500">
        <ele>1815.399</ele>
        <time>2018-12-28T09:51:16Z</time>
      </trkpt>
      <trkpt lat="35.696020" lon="-112.133480">
        <ele>1815.484</ele>
        <time>2018-12-28T09:51:36Z</time>
      </trkpt>
      <trkpt lat="35.696130" lon="-112.133470">
        <ele>1815.424</ele>
        <time>2018-12-28T09:51:56Z</time>
      </trkpt>
      <trkpt lat="35.696240" lon="-112.133450">
        <ele>1815.426</ele>
        <time>2018-12-28T09:52:16Z</time>
      </trkpt>
      <trkpt lat="35.696370" lon="-112.133430">
        <ele>1815.580</ele>
        <time>2018-12-28T09:52:36Z</time>
      </trkpt>
      <trkpt lat="35.696470" lon="-112.133420">
        <ele>1815.531</ele>
        <time>2018-12-28T09:52:56Z</time>
      </trkpt>
      <trkpt lat="35.696560" lon="-112.133400">
        <ele>1815.661</ele>
        <time>2018-12-28T09:53:16Z</time>
      </trkpt>
      <trkpt lat="35.696670" lon="-112.133390">
        <ele>1815.607</ele>
        <time>2018-12-28T09:53:36Z</time>
      </trkpt>
      <trkpt lat="35.696790" lon="-112.133370">
        <ele>1815.708</ele>
        <time>2018-12-28T09:53:56Z</time>
      </trkpt>
      <trkpt lat="35.697120" lon="-112.133330">
        <ele>1815.946</ele>
        <time>2018-12-28T09:54:16Z</time>
      </trkpt>
      <trkpt lat="35.697330" lon="-112.133300">
        <ele>1816.054</ele>
        <time>2018-12-28T09:54:36Z</time>
      </trkpt>
      <trkpt lat="35.697550" lon="-112.133270">
        <ele>1816.049</ele>
        <time>2018-12-28T09:54:56Z</time>
      </trkpt>
      <trkpt lat="35.697770" lon="-112.133240">
        <ele>1816.030</ele>
        <time>2018-12-28T09:55:16Z</time>
      </trkpt>
      <trkpt lat="35.698010" lon="-112.133210">
        <ele>1815.995</ele>
        <time>2018-12-28T09:55:36Z</time>
      </trkpt>
      <trkpt lat="35.698090" lon="-112.133190">
        <ele>1816.035</ele>
        <time>2018-12-28T09:55:56Z</time>
      </trkpt>
      <trkpt lat="35.698290" lon="-112.133170">
        <ele>1815.917</ele>
        <time>2018-12-28T09:56:16Z</time>
      </trkpt>
      <trkpt lat="35.698960" lon="-112.133080">
        <ele>1816.151</ele>
        <time>2018-12-28T09:56:36Z</time>
      </trkpt>
      <trkpt lat="35.699390" lon="-112.133020">
        <ele>1816.262</ele>
        <time>2018-12-28T09:56:56Z</time>
      </trkpt>
      <trkpt lat="35.699610" lon="-112.132990">
        <ele>1816.383</ele>
        <time>2018-12-28T09:57:16Z</time>
      </trkpt>
      <trkpt lat="35.699940" lon="-112.132950">
        <ele>1816.511</ele>
        <time>2018-12-28T09:57:36Z</time>
      </trkpt>
      <trkpt lat="35.700260" lon="-112.132910">
        <ele>1816.708</ele>
        <time>2018-12-28T09:57:56Z</time>
      </trkpt>
      <trkpt lat="35.700480" lon="-112.132880">
        <ele>1816.899</ele>
        <time>2018-12-28T09:58:16Z</time>
      </trkpt>
      <trkpt lat="35.700800" lon="-112.132840">
        <ele>1817.077</ele>
        <time>2018-12-28T09:58:36Z</time>
      </trkpt>
      <trkpt lat="35.701020" lon="-112.132810">
        <ele>1817.062</ele>
        <time>2018-12-28T09:58:56Z</time>
      </trkpt>
      <trkpt lat="35.701150" lon="-112.132790">
        <ele>1817.053</ele>
        <time>2018-12-28T09:59:16Z</time>
      </trkpt>
      <trkpt lat="35.701250" lon="-112.132780">
        <ele>1816.988</ele>
        <time>2018-12-28T09:59:36Z</time>
      </trkpt>
      <trkpt lat="35.701360" lon="-112.132760">
        <ele>1816.968</ele>
        <time>2018-12-28T09:59:56Z</time>
      </trkpt>
      <trkpt lat="35.701480" lon="-112.132750">
        <ele>1816.960</ele>
        <time>2018-12-28T10:00:16Z</time>
      </trkpt>
      <trkpt lat="35.701770" lon="-112.132710">
        <ele>1816.924</ele>
        <time>2018-12-28T10:00:36Z</time>
      </trkpt>
      <trkpt lat="35.702000" lon="-112.132680">
        <ele>1816.883</ele>
        <time>2018-12-28T10:00:56Z</time>
      </trkpt>
      <trkpt lat="35.702250" lon="-112.132650">
        <ele>1816.625</ele>
        <time>2018-12-28T10:01:16Z</time>
      </trkpt>
      <trkpt lat="35.702430" lon="-112.132630">
        <ele>1816.517</ele>
        <time>2018-12-28T10:01:36Z</time>
      </trkpt>
      <trkpt lat="35.702660" lon="-112.132600">
        <ele>1816.208</ele>
        <time>2018-12-28T10:01:56Z</time>
      </trkpt>
      <trkpt lat="35.702700" lon="-112.132560">
        <ele>1816.341</ele>
        <time>2018-12-28T10:02:16Z</time>
      </trkpt>
      <trkpt lat="35.702710" lon="-112.132560">
        <ele>1816.239</ele>
        <time>2018-12-28T10:02:36Z</time>
      </trkpt>
      <trkpt lat="35.702840" lon="-112.132520">
        <ele>1816.244</ele>
        <time>2018-12-28T10:02:56Z</time>
      </trkpt>
      <trkpt lat="35.703010" lon="-112.132500">
        <ele>1816.135</ele>
        <time>2018-12-28T10:03:16Z</time>
      </trkpt>
      <trkpt lat="35.703960" lon="-112.132370">
        <ele>1815.560</ele>
        <time>2018-12-28T10:03:36Z</time>
      </trkpt>
      <trkpt lat="35.704900" lon="-112.132250">
        <ele>1815.330</ele>
        <time>2018-12-28T10:03:56Z</time>
      </trkpt>
      <trkpt lat="35.705250" lon="-112.132200">
        <ele>1815.522</ele>
        <time>2018-12-28T10:04:16Z</time>
      </trkpt>
      <trkpt lat="35.705560" lon="-112.132160">
        <ele>1815.666</ele>
        <time>2018-12-28T10:04:36Z</time>
      </trkpt>
      <trkpt lat="35.706250" lon="-112.132070">
        <ele>1816.512</ele>
        <time>2018-12-28T10:04:56Z</time>
      </trkpt>
      <trkpt lat="35.706410" lon="-112.132050">
        <ele>1817.032</ele>
        <time>2018-12-28T10:05:16Z</time>
      </trkpt>
      <trkpt lat="35.706440" lon="-112.132040">
        <ele>1817.005</ele>
        <time>2018-12-28T10:05:36Z</time>
      </trkpt>
      <trkpt lat="35.706510" lon="-112.132030">
        <ele>1817.208</ele>
        <time>2018-12-28T10:05:56Z</time>
      </trkpt>
      <trkpt lat="35.706520" lon="-112.132030">
        <ele>1817.394</ele>
        <time>2018-12-28T10:06:16Z</time>
      </trkpt>
      <trkpt lat="35.706550" lon="-112.132050">
        <ele>1817.332</ele>
        <time>2018-12-28T10:06:36Z</time>
      </trkpt>
      <trkpt lat="35.706740" lon="-112.132020">
        <ele>1817.437</ele>
        <time>2018-12-28T10:06:56Z</time>
      </trkpt>
      <trkpt lat="35.707340" lon="-112.131940">
        <ele>1817.798</ele>
        <time>2018-12-28T10:07:16Z</time>
      </trkpt>
      <trkpt lat="35.707630" lon="-112.131900">
        <ele>1817.943</ele>
        <time>2018-12-28T10:07:36Z</time>
      </trkpt>
      <trkpt lat="35.708060" lon="-112.131850">
        <ele>1818.513</ele>
        <time>2018-12-28T10:07:56Z</time>
      </trkpt>
      <trkpt lat="35.708500" lon="-112.131790">
        <ele>1819.675</ele>
        <time>2018-12-28T10:08:16Z</time>
      </trkpt>
      <trkpt lat="35.708840" lon="-112.131740">
        <ele>1820.659</ele>
        <time>2018-12-28T10:08:36Z</time>
      </trkpt>
      <trkpt lat="35.709050" lon="-112.131710">
        <ele>1821.285</ele>
        <time>2018-12-28T10:08:56Z</time>
      </trkpt>
      <trkpt lat="35.709290" lon="-112.131670">
        <ele>1821.789</ele>
        <time>2018-12-28T10:09:16Z</time>
      </trkpt>
      <trkpt lat="35.710590" lon="-112.131500">
        <ele>1823.417</ele>
        <time>2018-12-28T10:09:36Z</time>
      </trkpt>
      <trkpt lat="35.710930" lon="-112.131460">
        <ele>1823.608</ele>
        <time>2018-12-28T10:09:56Z</time>
      </trkpt>
      <trkpt lat="35.711200" lon="-112.131420">
        <ele>1823.951</ele>
        <time>2018-12-28T10:10:16Z</time>
      </trkpt>
      <trkpt lat="35.711420" lon="-112.131390">
        <ele>1824.359</ele>
        <time>2018-12-28T10:10:36Z</time>
      </trkpt>
      <trkpt lat="35.711660" lon="-112.131370">
        <ele>1824.584</ele>
        <time>2018-12-28T10:10:56Z</time>
      </trkpt>
      <trkpt lat="35.712200" lon="-112.131320">
        <ele>1824.785</ele>
        <time>2018-12-28T10:11:16Z</time>
      </trkpt>
      <trkpt lat="35.712580" lon="-112.131290">
        <ele>1824.650</ele>
        <time>2018-12-28T10:11:36Z</time>
      </trkpt>
      <trkpt lat="35.712800" lon="-112.131280">
        <ele>1824.550</ele>
        <time>2018-12-28T10:11:56Z</time>
      </trkpt>
      <trkpt lat="35.713010" lon="-112.131270">
        <ele>1824.322</ele>
        <time>2018-12-28T10:12:16Z</time>
      </trkpt>
      <trkpt lat="35.713160" lon="-112.131260">
        <ele>1824.286</ele>
        <time>2018-12-28T10:12:36Z</time>
      </trkpt>
      <trkpt lat="35.713240" lon="-112.131260">
        <ele>1824.229</ele>
        <time>2018-12-28T10:12:56Z</time>
      </trkpt>
      <trkpt lat="35.713340" lon="-112.131250">
        <ele>1824.100</ele>
        <time>2018-12-28T10:13:16Z</time>
      </trkpt>
      <trkpt lat="35.713710" lon="-112.131240">
        <ele>1824.120</ele>
        <time>2018-12-28T10:13:36Z</time>
      </trkpt>
      <trkpt lat="35.714010" lon="-112.131240">
        <ele>1824.008</ele>
        <time>2018-12-28T10:13:56Z</time>
      </trkpt>
      <trkpt lat="35.714320" lon="-112.131230">
        <ele>1823.785</ele>
        <time>2018-12-28T10:14:16Z</time>
      </trkpt>
      <trkpt lat="35.714530" lon="-112.131230">
        <ele>1823.693</ele>
        <time>2018-12-28T10:14:36Z</time>
      </trkpt>
      <trkpt lat="35.714770" lon="-112.131230">
        <ele>1823.538</ele>
        <time>2018-12-28T10:14:56Z</time>
      </trkpt>
      <trkpt lat="35.715080" lon="-112.131230">
        <ele>1823.399</ele>
        <time>2018-12-28T10:15:16Z</time>
      </trkpt>
      <trkpt lat="35.715130" lon="-112.131230">
        <ele>1823.394</ele>
        <time>2018-12-28T10:15:36Z</time>
      </trkpt>
      <trkpt lat="35.715320" lon="-112.131230">
        <ele>1823.634</ele>
        <time>2018-12-28T10:15:56Z</time>
      </trkpt>
      <trkpt lat="35.715530" lon="-112.131220">
        <ele>1824.416</ele>
        <time>2018-12-28T10:16:16Z</time>
      </trkpt>
      <trkpt lat="35.715660" lon="-112.131220">
        <ele>1825.090</ele>
        <time>2018-12-28T10:16:36Z</time>
      </trkpt>
      <trkpt lat="35.715990" lon="-112.131210">
        <ele>1828.233</ele>
        <time>2018-12-28T10:16:56Z</time>
      </trkpt>
      <trkpt lat="35.716360" lon="-112.131200">
        <ele>1829.523</ele>
        <time>2018-12-28T10:17:16Z</time>
      </trkpt>
      <trkpt lat="35.716630" lon="-112.131200">
        <ele>1829.615</ele>
        <time>2018-12-28T10:17:36Z</time>
      </trkpt>
      <trkpt lat="35.716960" lon="-112.131200">
        <ele>1829.008</ele>
        <time>2018-12-28T10:17:56Z</time>
      </trkpt>
      <trkpt lat="35.717290" lon="-112.131200">
        <ele>1828.776</ele>
        <time>2018-12-28T10:18:16Z</time>
      </trkpt>
      <trkpt lat="35.717510" lon="-112.131200">
        <ele>1829.244</ele>
        <time>2018-12-28T10:18:36Z</time>
      </trkpt>
      <trkpt lat="35.717830" lon="-112.131200">
        <ele>1829.689</ele>
        <time>2018-12-28T10:18:56Z</time>
      </trkpt>
      <trkpt lat="35.718060" lon="-112.131200">
        <ele>1829.690</ele>
        <time>2018-12-28T10:19:16Z</time>
      </trkpt>
      <trkpt lat="35.718290" lon="-112.131200">
        <ele>1829.995</ele>
        <time>2018-12-28T10:19:36Z</time>
      </trkpt>
      <trkpt lat="35.718610" lon="-112.131190">
        <ele>1830.585</ele>
        <time>2018-12-28T10:19:56Z</time>
      </trkpt>
      <trkpt lat="35.718830" lon="-112.131190">
        <ele>1830.467</ele>
        <time>2018-12-28T10:20:16Z</time>
      </trkpt>
      <trkpt lat="35.719060" lon="-112.131190">
        <ele>1829.871</ele>
        <time>2018-12-28T10:20:36Z</time>
      </trkpt>
      <trkpt lat="35.719270" lon="-112.131190">
        <ele>1829.368</ele>
        <time>2018-12-28T10:20:56Z</time>
      </trkpt>
      <trkpt lat="35.719490" lon="-112.131190">
        <ele>1829.442</ele>
        <time>2018-12-28T10:21:16Z</time>
      </trkpt>
      <trkpt lat="35.719700" lon="-112.131190">
        <ele>1829.726</ele>
        <time>2018-12-28T10:21:36Z</time>
      </trkpt>
      <trkpt lat="35.719930" lon="-112.131190">
        <ele>1830.108</ele>
        <time>2018-12-28T10:21:56Z</time>
      </trkpt>
      <trkpt lat="35.721120" lon="-112.131180">
        <ele>1829.669</ele>
        <time>2018-12-28T10:22:16Z</time>
      </trkpt>
      <trkpt lat="35.721470" lon="-112.131180">
        <ele>1829.647</ele>
        <time>2018-12-28T10:22:36Z</time>
      </trkpt>
      <trkpt lat="35.721710" lon="-112.131180">
        <ele>1829.772</ele>
        <time>2018-12-28T10:22:56Z</time>
      </trkpt>
      <trkpt lat="35.722020" lon="-112.131180">
        <ele>1829.893</ele>
        <time>2018-12-28T10:23:16Z</time>
      </trkpt>
      <trkpt lat="35.722350" lon="-112.131180">
        <ele>1830.418</ele>
        <time>2018-12-28T10:23:36Z</time>
      </trkpt>
      <trkpt lat="35.722680" lon="-112.131170">
        <ele>1830.988</ele>
        <time>2018-12-28T10:23:56Z</time>
      </trkpt>
      <trkpt lat="35.722820" lon="-112.131170">
        <ele>1831.060</ele>
        <time>2018-12-28T10:24:16Z</time>
      </trkpt>
      <trkpt lat="35.723020" lon="-112.131170">
        <ele>1831.144</ele>
        <time>2018-12-28T10:24:36Z</time>
      </trkpt>
      <trkpt lat="35.723450" lon="-112.131170">
        <ele>1831.258</ele>
        <time>2018-12-28T10:24:56Z</time>
      </trkpt>
      <trkpt lat="35.723910" lon="-112.131160">
        <ele>1831.552</ele>
        <time>2018-12-28T10:25:16Z</time>
      </trkpt>
      <trkpt lat="35.724610" lon="-112.131160">
        <ele>1831.317</ele>
        <time>2018-12-28T10:25:36Z</time>
      </trkpt>
      <trkpt lat="35.724770" lon="-112.131160">
        <ele>1831.308</ele>
        <time>2018-12-28T10:25:56Z</time>
      </trkpt>
      <trkpt lat="35.725100" lon="-112.131160">
        <ele>1831.388</ele>
        <time>2018-12-28T10:26:16Z</time>
      </trkpt>
      <trkpt lat="35.725650" lon="-112.131150">
        <ele>1831.316</ele>
        <time>2018-12-28T10:26:36Z</time>
      </trkpt>
      <trkpt lat="35.726530" lon="-112.131140">
        <ele>1830.831</ele>
        <time>2018-12-28T10:26:56Z</time>
      </trkpt>
      <trkpt lat="35.727080" lon="-112.131140">
        <ele>1830.732</ele>
        <time>2018-12-28T10:27:16Z</time>
      </trkpt>
      <trkpt lat="35.728040" lon="-112.131130">
        <ele>1830.197</ele>
        <time>2018-12-28T10:27:36Z</time>
      </trkpt>
      <trkpt lat="35.728690" lon="-112.131130">
        <ele>1829.787</ele>
        <time>2018-12-28T10:27:56Z</time>
      </trkpt>
      <trkpt lat="35.728920" lon="-112.131120">
        <ele>1829.679</ele>
        <time>2018-12-28T10:28:16Z</time>
      </trkpt>
      <trkpt lat="35.729020" lon="-112.131100">
        <ele>1829.623</ele>
        <time>2018-12-28T10:28:36Z</time>
      </trkpt>
      <trkpt lat="35.729030" lon="-112.131100">
        <ele>1829.629</ele>
        <time>2018-12-28T10:28:56Z</time>
      </trkpt>
      <trkpt lat="35.729040" lon="-112.131100">
        <ele>1829.600</ele>
        <time>2018-12-28T10:29:16Z</time>
      </trkpt>
      <trkpt lat="35.729270" lon="-112.131100">
        <ele>1829.620</ele>
        <time>2018-12-28T10:29:36Z</time>
      </trkpt>
      <trkpt lat="35.729460" lon="-112.131090">
        <ele>1829.708</ele>
        <time>2018-12-28T10:29:56Z</time>
      </trkpt>
      <trkpt lat="35.730160" lon="-112.131070">
        <ele>1830.825</ele>
        <time>2018-12-28T10:30:16Z</time>
      </trkpt>
      <trkpt lat="35.730850" lon="-112.131060">
        <ele>1832.753</ele>
        <time>2018-12-28T10:30:36Z</time>
      </trkpt>
      <trkpt lat="35.731100" lon="-112.131060">
        <ele>1833.278</ele>
        <time>2018-12-28T10:30:56Z</time>
      </trkpt>
      <trkpt lat="35.731220" lon="-112.131060">
        <ele>1833.389</ele>
        <time>2018-12-28T10:31:16Z</time>
      </trkpt>
      <trkpt lat="35.731950" lon="-112.131070">
        <ele>1834.144</ele>
        <time>2018-12-28T10:31:36Z</time>
      </trkpt>
      <trkpt lat="35.732390" lon="-112.131070">
        <ele>1833.574</ele>
        <time>2018-12-28T10:31:56Z</time>
      </trkpt>
      <trkpt lat="35.732400" lon="-112.131080">
        <ele>1833.436</ele>
        <time>2018-12-28T10:32:16Z</time>
      </trkpt>
      <trkpt lat="35.732480" lon="-112.131100">
        <ele>1833.040</ele>
        <time>2018-12-28T10:32:36Z</time>
      </trkpt>
      <trkpt lat="35.733150" lon="-112.131100">
        <ele>1830.628</ele>
        <time>2018-12-28T10:32:56Z</time>
      </trkpt>
      <trkpt lat="35.733290" lon="-112.131100">
        <ele>1830.689</ele>
        <time>2018-12-28T10:33:16Z</time>
      </trkpt>
      <trkpt lat="35.733750" lon="-112.131100">
        <ele>1830.517</ele>
        <time>2018-12-28T10:33:36Z</time>
      </trkpt>
      <trkpt lat="35.734080" lon="-112.131100">
        <ele>1830.208</ele>
        <time>2018-12-28T10:33:56Z</time>
      </trkpt>
      <trkpt lat="35.734630" lon="-112.131100">
        <ele>1830.085</ele>
        <time>2018-12-28T10:34:16Z</time>
      </trkpt>
      <trkpt lat="35.735170" lon="-112.131090">
        <ele>1833.043</ele>
        <time>2018-12-28T10:34:36Z</time>
      </trkpt>
      <trkpt lat="35.735370" lon="-112.131090">
        <ele>1834.828</ele>
        <time>2018-12-28T10:34:56Z</time>
      </trkpt>
      <trkpt lat="35.735590" lon="-112.131080">
        <ele>1835.559</ele>
        <time>2018-12-28T10:35:16Z</time>
      </trkpt>
      <trkpt lat="35.735840" lon="-112.131080">
        <ele>1835.844</ele>
        <time>2018-12-28T10:35:36Z</time>
      </trkpt>
      <trkpt lat="35.736050" lon="-112.131080">
        <ele>1836.164</ele>
        <time>2018-12-28T10:35:56Z</time>
      </trkpt>
      <trkpt lat="35.736260" lon="-112.131080">
        <ele>1836.896</ele>
        <time>2018-12-28T10:36:16Z</time>
      </trkpt>
      <trkpt lat="35.736490" lon="-112.131070">
        <ele>1837.330</ele>
        <time>2018-12-28T10:36:36Z</time>
      </trkpt>
      <trkpt lat="35.736940" lon="-112.131070">
        <ele>1837.699</ele>
        <time>2018-12-28T10:36:56Z</time>
      </trkpt>
      <trkpt lat="35.737370" lon="-112.131070">
        <ele>1837.307</ele>
        <time>2018-12-28T10:37:16Z</time>
      </trkpt>
      <trkpt lat="35.737700" lon="-112.131070">
        <ele>1837.727</ele>
        <time>2018-12-28T10:37:36Z</time>
      </trkpt>
      <trkpt lat="35.738060" lon="-112.131070">
        <ele>1838.808</ele>
        <time>2018-12-28T10:37:56Z</time>
      </trkpt>
      <trkpt lat="35.739080" lon="-112.131060">
        <ele>1841.822</ele>
        <time>2018-12-28T10:38:16Z</time>
      </trkpt>
      <trkpt lat="35.739580" lon="-112.131060">
        <ele>1841.920</ele>
        <time>2018-12-28T10:38:36Z</time>
      </trkpt>
      <trkpt lat="35.740450" lon="-112.131050">
        <ele>1843.575</ele>
        <time>2018-12-28T10:38:56Z</time>
      </trkpt>
      <trkpt lat="35.740780" lon="-112.131050">
        <ele>1844.416</ele>
        <time>2018-12-28T10:39:16Z</time>
      </trkpt>
      <trkpt lat="35.741000" lon="-112.131050">
        <ele>1845.141</ele>
        <time>2018-12-28T10:39:36Z</time>
      </trkpt>
      <trkpt lat="35.741330" lon="-112.131040">
        <ele>1845.831</ele>
        <time>2018-12-28T10:39:56Z</time>
      </trkpt>
      <trkpt lat="35.741450" lon="-112.131040">
        <ele>1846.143</ele>
        <time>2018-12-28T10:40:16Z</time>
      </trkpt>
      <trkpt lat="35.741660" lon="-112.131040">
        <ele>1846.577</ele>
        <time>2018-12-28T10:40:36Z</time>
      </trkpt>
      <trkpt lat="35.741990" lon="-112.131040">
        <ele>1847.193</ele>
        <time>2018-12-28T10:40:56Z</time>
      </trkpt>
      <trkpt lat="35.742540" lon="-112.131040">
        <ele>1847.665</ele>
        <time>2018-12-28T10:41:16Z</time>
      </trkpt>
      <trkpt lat="35.743100" lon="-112.131030">
        <ele>1847.821</ele>
        <time>2018-12-28T10:41:36Z</time>
      </trkpt>
      <trkpt lat="35.743320" lon="-112.131030">
        <ele>1847.908</ele>
        <time>2018-12-28T10:41:56Z</time>
      </trkpt>
      <trkpt lat="35.743750" lon="-112.131030">
        <ele>1848.352</ele>
        <time>2018-12-28T10:42:16Z</time>
      </trkpt>
      <trkpt lat="35.744430" lon="-112.131020">
        <ele>1849.550</ele>
        <time>2018-12-28T10:42:36Z</time>
      </trkpt>
      <trkpt lat="35.745400" lon="-112.131010">
        <ele>1850.665</ele>
        <time>2018-12-28T10:42:56Z</time>
      </trkpt>
      <trkpt lat="35.746140" lon="-112.130990">
        <ele>1852.016</ele>
        <time>2018-12-28T10:43:16Z</time>
      </trkpt>
      <trkpt lat="35.747600" lon="-112.130980">
        <ele>1853.261</ele>
        <time>2018-12-28T10:43:36Z</time>
      </trkpt>
      <trkpt lat="35.748130" lon="-112.130970">
        <ele>1853.191</ele>
        <time>2018-12-28T10:43:56Z</time>
      </trkpt>
      <trkpt lat="35.748740" lon="-112.130960">
        <ele>1852.833</ele>
        <time>2018-12-28T10:44:16Z</time>
      </trkpt>
      <trkpt lat="35.749400" lon="-112.130960">
        <ele>1852.647</ele>
        <time>2018-12-28T10:44:36Z</time>
      </trkpt>
      <trkpt lat="35.749780" lon="-112.130960">
        <ele>1852.835</ele>
        <time>2018-12-28T10:44:56Z</time>
      </trkpt>
      <trkpt lat="35.750430" lon="-112.130960">
        <ele>1852.886</ele>
        <time>2018-12-28T10:45:16Z</time>
      </trkpt>
      <trkpt lat="35.751090" lon="-112.130960">
        <ele>1851.014</ele>
        <time>2018-12-28T10:45:36Z</time>
      </trkpt>
      <trkpt lat="35.751750" lon="-112.130950">
        <ele>1853.508</ele>
        <time>2018-12-28T10:45:56Z</time>
      </trkpt>
      <trkpt lat="35.752530" lon="-112.130940">
        <ele>1856.226</ele>
        <time>2018-12-28T10:46:16Z</time>
      </trkpt>
      <trkpt lat="35.753510" lon="-112.130930">
        <ele>1859.894</ele>
        <time>2018-12-28T10:46:36Z</time>
      </trkpt>
      <trkpt lat="35.754160" lon="-112.130930">
        <ele>1861.299</ele>
        <time>2018-12-28T10:46:56Z</time>
      </trkpt>
      <trkpt lat="35.754690" lon="-112.130930">
        <ele>1862.420</ele>
        <time>2018-12-28T10:47:16Z</time>
      </trkpt>
      <trkpt lat="35.755040" lon="-112.130920">
        <ele>1863.155</ele>
        <time>2018-12-28T10:47:36Z</time>
      </trkpt>
      <trkpt lat="35.755280" lon="-112.130920">
        <ele>1863.295</ele>
        <time>2018-12-28T10:47:56Z</time>
      </trkpt>
      <trkpt lat="35.755810" lon="-112.130920">
        <ele>1863.437</ele>
        <time>2018-12-28T10:48:16Z</time>
      </trkpt>
      <trkpt lat="35.756030" lon="-112.130920">
        <ele>1863.521</ele>
        <time>2018-12-28T10:48:36Z</time>
      </trkpt>
      <trkpt lat="35.758330" lon="-112.130900">
        <ele>1863.912</ele>
        <time>2018-12-28T10:48:56Z</time>
      </trkpt>
      <trkpt lat="35.759020" lon="-112.130900">
        <ele>1863.532</ele>
        <time>2018-12-28T10:49:16Z</time>
      </trkpt>
      <trkpt lat="35.759670" lon="-112.130890">
        <ele>1862.605</ele>
        <time>2018-12-28T10:49:36Z</time>
      </trkpt>
      <trkpt lat="35.760570" lon="-112.130890">
        <ele>1861.708</ele>
        <time>2018-12-28T10:49:56Z</time>
      </trkpt>
      <trkpt lat="35.761040" lon="-112.130890">
        <ele>1862.334</ele>
        <time>2018-12-28T10:50:16Z</time>
      </trkpt>
      <trkpt lat="35.761600" lon="-112.130880">
        <ele>1863.282</ele>
        <time>2018-12-28T10:50:36Z</time>
      </trkpt>
      <trkpt lat="35.762540" lon="-112.130830">
        <ele>1864.757</ele>
        <time>2018-12-28T10:50:56Z</time>
      </trkpt>
      <trkpt lat="35.762920" lon="-112.130810">
        <ele>1864.718</ele>
        <time>2018-12-28T10:51:16Z</time>
      </trkpt>
      <trkpt lat="35.763630" lon="-112.130750">
        <ele>1864.383</ele>
        <time>2018-12-28T10:51:36Z</time>
      </trkpt>
      <trkpt lat="35.763680" lon="-112.130720">
        <ele>1864.473</ele>
        <time>2018-12-28T10:51:56Z</time>
      </trkpt>
      <trkpt lat="35.763690" lon="-112.130720">
        <ele>1864.425</ele>
        <time>2018-12-28T10:52:16Z</time>
      </trkpt>
      <trkpt lat="35.763700" lon="-112.130720">
        <ele>1864.329</ele>
        <time>2018-12-28T10:52:36Z</time>
      </trkpt>
      <trkpt lat="35.763960" lon="-112.130680">
        <ele>1864.392</ele>
        <time>2018-12-28T10:52:56Z</time>
      </trkpt>
      <trkpt lat="35.764080" lon="-112.130660">
        <ele>1864.373</ele>
        <time>2018-12-28T10:53:16Z</time>
      </trkpt>
      <trkpt lat="35.764510" lon="-112.130610">
        <ele>1864.320</ele>
        <time>2018-12-28T10:53:36Z</time>
      </trkpt>
      <trkpt lat="35.764710" lon="-112.130580">
        <ele>1864.308</ele>
        <time>2018-12-28T10:53:56Z</time>
      </trkpt>
      <trkpt lat="35.765150" lon="-112.130520">
        <ele>1864.142</ele>
        <time>2018-12-28T10:54:16Z</time>
      </trkpt>
      <trkpt lat="35.765910" lon="-112.130410">
        <ele>1863.460</ele>
        <time>2018-12-28T10:54:36Z</time>
      </trkpt>
      <trkpt lat="35.766190" lon="-112.130380">
        <ele>1863.115</ele>
        <time>2018-12-28T10:54:56Z</time>
      </trkpt>
      <trkpt lat="35.767340" lon="-112.130240">
        <ele>1860.526</ele>
        <time>2018-12-28T10:55:16Z</time>
      </trkpt>
      <trkpt lat="35.767850" lon="-112.130190">
        <ele>1860.251</ele>
        <time>2018-12-28T10:55:36Z</time>
      </trkpt>
      <trkpt lat="35.769430" lon="-112.130040">
        <ele>1857.061</ele>
        <time>2018-12-28T10:55:56Z</time>
      </trkpt>
      <trkpt lat="35.769440" lon="-112.130040">
        <ele>1857.033</ele>
        <time>2018-12-28T10:56:16Z</time>
      </trkpt>
      <trkpt lat="35.769450" lon="-112.130040">
        <ele>1857.087</ele>
        <time>2018-12-28T10:56:36Z</time>
      </trkpt>
      <trkpt lat="35.769530" lon="-112.130060">
        <ele>1857.026</ele>
        <time>2018-12-28T10:56:56Z</time>
      </trkpt>
      <trkpt lat="35.769780" lon="-112.130030">
        <ele>1856.647</ele>
        <time>2018-12-28T10:57:16Z</time>
      </trkpt>
      <trkpt lat="35.770000" lon="-112.130000">
        <ele>1856.311</ele>
        <time>2018-12-28T10:57:36Z</time>
      </trkpt>
      <trkpt lat="35.770650" lon="-112.129940">
        <ele>1855.508</ele>
        <time>2018-12-28T10:57:56Z</time>
      </trkpt>
      <trkpt lat="35.771010" lon="-112.129890">
        <ele>1855.265</ele>
        <time>2018-12-28T10:58:16Z</time>
      </trkpt>
      <trkpt lat="35.771180" lon="-112.129880">
        <ele>1854.963</ele>
        <time>2018-12-28T10:58:36Z</time>
      </trkpt>
      <trkpt lat="35.771380" lon="-112.129850">
        <ele>1854.638</ele>
        <time>2018-12-28T10:58:56Z</time>
      </trkpt>
      <trkpt lat="35.771630" lon="-112.129820">
        <ele>1854.239</ele>
        <time>2018-12-28T10:59:16Z</time>
      </trkpt>
      <trkpt lat="35.771980" lon="-112.129780">
        <ele>1853.584</ele>
        <time>2018-12-28T10:59:36Z</time>
      </trkpt>
      <trkpt lat="35.772250" lon="-112.129750">
        <ele>1852.944</ele>
        <time>2018-12-28T10:59:56Z</time>
      </trkpt>
      <trkpt lat="35.772690" lon="-112.129700">
        <ele>1851.936</ele>
        <time>2018-12-28T11:00:16Z</time>
      </trkpt>
      <trkpt lat="35.772810" lon="-112.129690">
        <ele>1851.730</ele>
        <time>2018-12-28T11:00:36Z</time>
      </trkpt>
      <trkpt lat="35.773010" lon="-112.129660">
        <ele>1851.535</ele>
        <time>2018-12-28T11:00:56Z</time>
      </trkpt>
      <trkpt lat="35.773140" lon="-112.129650">
        <ele>1851.486</ele>
        <time>2018-12-28T11:01:16Z</time>
      </trkpt>
      <trkpt lat="35.773350" lon="-112.129620">
        <ele>1851.114</ele>
        <time>2018-12-28T11:01:36Z</time>
      </trkpt>
      <trkpt lat="35.773460" lon="-112.129610">
        <ele>1850.908</ele>
        <time>2018-12-28T11:01:56Z</time>
      </trkpt>
      <trkpt lat="35.773690" lon="-112.129580">
        <ele>1850.876</ele>
        <time>2018-12-28T11:02:16Z</time>
      </trkpt>
      <trkpt lat="35.774180" lon="-112.129520">
        <ele>1850.094</ele>
        <time>2018-12-28T11:02:36Z</time>
      </trkpt>
      <trkpt lat="35.774350" lon="-112.129500">
        <ele>1849.849</ele>
        <time>2018-12-28T11:02:56Z</time>
      </trkpt>
      <trkpt lat="35.774890" lon="-112.129440">
        <ele>1849.240</ele>
        <time>2018-12-28T11:03:16Z</time>
      </trkpt>
      <trkpt lat="35.775120" lon="-112.129410">
        <ele>1848.925</ele>
        <time>2018-12-28T11:03:36Z</time>
      </trkpt>
      <trkpt lat="35.775320" lon="-112.129390">
        <ele>1848.865</ele>
        <time>2018-12-28T11:03:56Z</time>
      </trkpt>
      <trkpt lat="35.775870" lon="-112.129340">
        <ele>1848.877</ele>
        <time>2018-12-28T11:04:16Z</time>
      </trkpt>
      <trkpt lat="35.776100" lon="-112.129320">
        <ele>1848.851</ele>
        <time>2018-12-28T11:04:36Z</time>
      </trkpt>
      <trkpt lat="35.776320" lon="-112.129300">
        <ele>1848.985</ele>
        <time>2018-12-28T11:04:56Z</time>
      </trkpt>
      <trkpt lat="35.776530" lon="-112.129290">
        <ele>1848.889</ele>
        <time>2018-12-28T11:05:16Z</time>
      </trkpt>
      <trkpt lat="35.776720" lon="-112.129280">
        <ele>1848.717</ele>
        <time>2018-12-28T11:05:36Z</time>
      </trkpt>
      <trkpt lat="35.776840" lon="-112.129270">
        <ele>1848.608</ele>
        <time>2018-12-28T11:05:56Z</time>
      </trkpt>
      <trkpt lat="35.777200" lon="-112.129250">
        <ele>1848.531</ele>
        <time>2018-12-28T11:06:16Z</time>
      </trkpt>
      <trkpt lat="35.777590" lon="-112.129240">
        <ele>1850.119</ele>
        <time>2018-12-28T11:06:36Z</time>
      </trkpt>
      <trkpt lat="35.777960" lon="-112.129240">
        <ele>1851.454</ele>
        <time>2018-12-28T11:06:56Z</time>
      </trkpt>
      <trkpt lat="35.778210" lon="-112.129230">
        <ele>1852.465</ele>
        <time>2018-12-28T11:07:16Z</time>
      </trkpt>
      <trkpt lat="35.778410" lon="-112.129230">
        <ele>1853.410</ele>
        <time>2018-12-28T11:07:36Z</time>
      </trkpt>
      <trkpt lat="35.778630" lon="-112.129230">
        <ele>1854.030</ele>
        <time>2018-12-28T11:07:56Z</time>
      </trkpt>
      <trkpt lat="35.778830" lon="-112.129240">
        <ele>1854.982</ele>
        <time>2018-12-28T11:08:16Z</time>
      </trkpt>
      <trkpt lat="35.779150" lon="-112.129240">
        <ele>1856.976</ele>
        <time>2018-12-28T11:08:36Z</time>
      </trkpt>
      <trkpt lat="35.779300" lon="-112.129250">
        <ele>1857.131</ele>
        <time>2018-12-28T11:08:56Z</time>
      </trkpt>
      <trkpt lat="35.779620" lon="-112.129270">
        <ele>1857.061</ele>
        <time>2018-12-28T11:09:16Z</time>
      </trkpt>
      <trkpt lat="35.780000" lon="-112.129290">
        <ele>1856.807</ele>
        <time>2018-12-28T11:09:36Z</time>
      </trkpt>
      <trkpt lat="35.780270" lon="-112.129310">
        <ele>1856.308</ele>
        <time>2018-12-28T11:09:56Z</time>
      </trkpt>
      <trkpt lat="35.780860" lon="-112.129350">
        <ele>1854.946</ele>
        <time>2018-12-28T11:10:16Z</time>
      </trkpt>
      <trkpt lat="35.781120" lon="-112.129370">
        <ele>1854.674</ele>
        <time>2018-12-28T11:10:36Z</time>
      </trkpt>
      <trkpt lat="35.781300" lon="-112.129390">
        <ele>1854.589</ele>
        <time>2018-12-28T11:10:56Z</time>
      </trkpt>
      <trkpt lat="35.781870" lon="-112.129430">
        <ele>1854.570</ele>
        <time>2018-12-28T11:11:16Z</time>
      </trkpt>
      <trkpt lat="35.782240" lon="-112.129450">
        <ele>1854.615</ele>
        <time>2018-12-28T11:11:36Z</time>
      </trkpt>
      <trkpt lat="35.782540" lon="-112.129470">
        <ele>1854.625</ele>
        <time>2018-12-28T11:11:56Z</time>
      </trkpt>
      <trkpt lat="35.782680" lon="-112.129480">
        <ele>1854.717</ele>
        <time>2018-12-28T11:12:16Z</time>
      </trkpt>
      <trkpt lat="35.783120" lon="-112.129510">
        <ele>1855.041</ele>
        <time>2018-12-28T11:12:36Z</time>
      </trkpt>
      <trkpt lat="35.783450" lon="-112.129540">
        <ele>1855.233</ele>
        <time>2018-12-28T11:12:56Z</time>
      </trkpt>
      <trkpt lat="35.783550" lon="-112.129540">
        <ele>1855.323</ele>
        <time>2018-12-28T11:13:16Z</time>
      </trkpt>
      <trkpt lat="35.783780" lon="-112.129560">
        <ele>1855.415</ele>
        <time>2018-12-28T11:13:36Z</time>
      </trkpt>
      <trkpt lat="35.783880" lon="-112.129570">
        <ele>1855.408</ele>
        <time>2018-12-28T11:13:56Z</time>
      </trkpt>
      <trkpt lat="35.784100" lon="-112.129580">
        <ele>1855.526</ele>
        <time>2018-12-28T11:14:16Z</time>
      </trkpt>
      <trkpt lat="35.784220" lon="-112.129590">
        <ele>1855.624</ele>
        <time>2018-12-28T11:14:36Z</time>
      </trkpt>
      <trkpt lat="35.784320" lon="-112.129600">
        <ele>1855.699</ele>
        <time>2018-12-28T11:14:56Z</time>
      </trkpt>
      <trkpt lat="35.784660" lon="-112.129620">
        <ele>1855.810</ele>
        <time>2018-12-28T11:15:16Z</time>
      </trkpt>
      <trkpt lat="35.784760" lon="-112.129630">
        <ele>1855.985</ele>
        <time>2018-12-28T11:15:36Z</time>
      </trkpt>
      <trkpt lat="35.785090" lon="-112.129650">
        <ele>1856.115</ele>
        <time>2018-12-28T11:15:56Z</time>
      </trkpt>
      <trkpt lat="35.785210" lon="-112.129660">
        <ele>1856.217</ele>
        <time>2018-12-28T11:16:16Z</time>
      </trkpt>
      <trkpt lat="35.785420" lon="-112.129680">
        <ele>1856.331</ele>
        <time>2018-12-28T11:16:36Z</time>
      </trkpt>
      <trkpt lat="35.786080" lon="-112.129720">
        <ele>1856.495</ele>
        <time>2018-12-28T11:16:56Z</time>
      </trkpt>
      <trkpt lat="35.786310" lon="-112.129740">
        <ele>1856.849</ele>
        <time>2018-12-28T11:17:16Z</time>
      </trkpt>
      <trkpt lat="35.786630" lon="-112.129760">
        <ele>1857.223</ele>
        <time>2018-12-28T11:17:36Z</time>
      </trkpt>
      <trkpt lat="35.786740" lon="-112.129770">
        <ele>1857.208</ele>
        <time>2018-12-28T11:17:56Z</time>
      </trkpt>
      <trkpt lat="35.786970" lon="-112.129780">
        <ele>1857.242</ele>
        <time>2018-12-28T11:18:16Z</time>
      </trkpt>
      <trkpt lat="35.787410" lon="-112.129820">
        <ele>1857.710</ele>
        <time>2018-12-28T11:18:36Z</time>
      </trkpt>
      <trkpt lat="35.787730" lon="-112.129840">
        <ele>1857.765</ele>
        <time>2018-12-28T11:18:56Z</time>
      </trkpt>
      <trkpt lat="35.788060" lon="-112.129860">
        <ele>1857.876</ele>
        <time>2018-12-28T11:19:16Z</time>
      </trkpt>
      <trkpt lat="35.788620" lon="-112.129900">
        <ele>1857.811</ele>
        <time>2018-12-28T11:19:36Z</time>
      </trkpt>
      <trkpt lat="35.789130" lon="-112.129940">
        <ele>1858.321</ele>
        <time>2018-12-28T11:19:56Z</time>
      </trkpt>
      <trkpt lat="35.789380" lon="-112.129960">
        <ele>1858.843</ele>
        <time>2018-12-28T11:20:16Z</time>
      </trkpt>
      <trkpt lat="35.789710" lon="-112.129980">
        <ele>1860.077</ele>
        <time>2018-12-28T11:20:36Z</time>
      </trkpt>
      <trkpt lat="35.790040" lon="-112.130000">
        <ele>1860.399</ele>
        <time>2018-12-28T11:20:56Z</time>
      </trkpt>
      <trkpt lat="35.790370" lon="-112.130030">
        <ele>1860.407</ele>
        <time>2018-12-28T11:21:16Z</time>
      </trkpt>
      <trkpt lat="35.790920" lon="-112.130070">
        <ele>1860.827</ele>
        <time>2018-12-28T11:21:36Z</time>
      </trkpt>
      <trkpt lat="35.791690" lon="-112.130120">
        <ele>1862.608</ele>
        <time>2018-12-28T11:21:56Z</time>
      </trkpt>
      <trkpt lat="35.792130" lon="-112.130150">
        <ele>1863.552</ele>
        <time>2018-12-28T11:22:16Z</time>
      </trkpt>
      <trkpt lat="35.792350" lon="-112.130160">
        <ele>1863.750</ele>
        <time>2018-12-28T11:22:36Z</time>
      </trkpt>
      <trkpt lat="35.792690" lon="-112.130190">
        <ele>1864.385</ele>
        <time>2018-12-28T11:22:56Z</time>
      </trkpt>
      <trkpt lat="35.792910" lon="-112.130200">
        <ele>1864.616</ele>
        <time>2018-12-28T11:23:16Z</time>
      </trkpt>
      <trkpt lat="35.793120" lon="-112.130220">
        <ele>1864.821</ele>
        <time>2018-12-28T11:23:36Z</time>
      </trkpt>
      <trkpt lat="35.793340" lon="-112.130230">
        <ele>1864.941</ele>
        <time>2018-12-28T11:23:56Z</time>
      </trkpt>
      <trkpt lat="35.793670" lon="-112.130260">
        <ele>1865.193</ele>
        <time>2018-12-28T11:24:16Z</time>
      </trkpt>
      <trkpt lat="35.794110" lon="-112.130290">
        <ele>1865.587</ele>
        <time>2018-12-28T11:24:36Z</time>
      </trkpt>
      <trkpt lat="35.794660" lon="-112.130320">
        <ele>1866.555</ele>
        <time>2018-12-28T11:24:56Z</time>
      </trkpt>
      <trkpt lat="35.795000" lon="-112.130350">
        <ele>1866.907</ele>
        <time>2018-12-28T11:25:16Z</time>
      </trkpt>
      <trkpt lat="35.796100" lon="-112.130420">
        <ele>1868.417</ele>
        <time>2018-12-28T11:25:36Z</time>
      </trkpt>
      <trkpt lat="35.796420" lon="-112.130450">
        <ele>1868.508</ele>
        <time>2018-12-28T11:25:56Z</time>
      </trkpt>
      <trkpt lat="35.796750" lon="-112.130470">
        <ele>1868.378</ele>
        <time>2018-12-28T11:26:16Z</time>
      </trkpt>
      <trkpt lat="35.796970" lon="-112.130490">
        <ele>1868.166</ele>
        <time>2018-12-28T11:26:36Z</time>
      </trkpt>
      <trkpt lat="35.797420" lon="-112.130530">
        <ele>1866.531</ele>
        <time>2018-12-28T11:26:56Z</time>
      </trkpt>
      <trkpt lat="35.797860" lon="-112.130550">
        <ele>1867.212</ele>
        <time>2018-12-28T11:27:16Z</time>
      </trkpt>
      <trkpt lat="35.798070" lon="-112.130570">
        <ele>1867.787</ele>
        <time>2018-12-28T11:27:36Z</time>
      </trkpt>
      <trkpt lat="35.798300" lon="-112.130580">
        <ele>1868.237</ele>
        <time>2018-12-28T11:27:56Z</time>
      </trkpt>
      <trkpt lat="35.798510" lon="-112.130600">
        <ele>1868.579</ele>
        <time>2018-12-28T11:28:16Z</time>
      </trkpt>
      <trkpt lat="35.798750" lon="-112.130610">
        <ele>1869.073</ele>
        <time>2018-12-28T11:28:36Z</time>
      </trkpt>
      <trkpt lat="35.798850" lon="-112.130620">
        <ele>1869.114</ele>
        <time>2018-12-28T11:28:56Z</time>
      </trkpt>
      <trkpt lat="35.799140" lon="-112.130640">
        <ele>1869.554</ele>
        <time>2018-12-28T11:29:16Z</time>
      </trkpt>
      <trkpt lat="35.799470" lon="-112.130660">
        <ele>1869.709</ele>
        <time>2018-12-28T11:29:36Z</time>
      </trkpt>
      <trkpt lat="35.799670" lon="-112.130680">
        <ele>1870.108</ele>
        <time>2018-12-28T11:29:56Z</time>
      </trkpt>
      <trkpt lat="35.800240" lon="-112.130720">
        <ele>1872.454</ele>
        <time>2018-12-28T11:30:16Z</time>
      </trkpt>
      <trkpt lat="35.800520" lon="-112.130740">
        <ele>1872.782</ele>
        <time>2018-12-28T11:30:36Z</time>
      </trkpt>
      <trkpt lat="35.800850" lon="-112.130760">
        <ele>1872.937</ele>
        <time>2018-12-28T11:30:56Z</time>
      </trkpt>
      <trkpt lat="35.801560" lon="-112.130810">
        <ele>1873.818</ele>
        <time>2018-12-28T11:31:16Z</time>
      </trkpt>
      <trkpt lat="35.802110" lon="-112.130850">
        <ele>1875.353</ele>
        <time>2018-12-28T11:31:36Z</time>
      </trkpt>
      <trkpt lat="35.802660" lon="-112.130890">
        <ele>1875.513</ele>
        <time>2018-12-28T11:31:56Z</time>
      </trkpt>
      <trkpt lat="35.802990" lon="-112.130910">
        <ele>1875.815</ele>
        <time>2018-12-28T11:32:16Z</time>
      </trkpt>
      <trkpt lat="35.803620" lon="-112.130960">
        <ele>1875.959</ele>
        <time>2018-12-28T11:32:36Z</time>
      </trkpt>
      <trkpt lat="35.803760" lon="-112.130970">
        <ele>1875.966</ele>
        <time>2018-12-28T11:32:56Z</time>
      </trkpt>
      <trkpt lat="35.804090" lon="-112.130990">
        <ele>1875.929</ele>
        <time>2018-12-28T11:33:16Z</time>
      </trkpt>
      <trkpt lat="35.804410" lon="-112.131020">
        <ele>1876.121</ele>
        <time>2018-12-28T11:33:36Z</time>
      </trkpt>
      <trkpt lat="35.804760" lon="-112.131040">
        <ele>1876.708</ele>
        <time>2018-12-28T11:33:56Z</time>
      </trkpt>
      <trkpt lat="35.805070" lon="-112.131060">
        <ele>1877.569</ele>
        <time>2018-12-28T11:34:16Z</time>
      </trkpt>
      <trkpt lat="35.805290" lon="-112.131080">
        <ele>1878.187</ele>
        <time>2018-12-28T11:34:36Z</time>
      </trkpt>
      <trkpt lat="35.806060" lon="-112.131130">
        <ele>1879.112</ele>
        <time>2018-12-28T11:34:56Z</time>
      </trkpt>
      <trkpt lat="35.806400" lon="-112.131160">
        <ele>1880.563</ele>
        <time>2018-12-28T11:35:16Z</time>
      </trkpt>
      <trkpt lat="35.806610" lon="-112.131170">
        <ele>1881.318</ele>
        <time>2018-12-28T11:35:36Z</time>
      </trkpt>
      <trkpt lat="35.806940" lon="-112.131200">
        <ele>1881.958</ele>
        <time>2018-12-28T11:35:56Z</time>
      </trkpt>
      <trkpt lat="35.807270" lon="-112.131220">
        <ele>1882.730</ele>
        <time>2018-12-28T11:36:16Z</time>
      </trkpt>
      <trkpt lat="35.807710" lon="-112.131250">
        <ele>1884.724</ele>
        <time>2018-12-28T11:36:36Z</time>
      </trkpt>
      <trkpt lat="35.807810" lon="-112.131260">
        <ele>1885.075</ele>
        <time>2018-12-28T11:36:56Z</time>
      </trkpt>
      <trkpt lat="35.808250" lon="-112.131290">
        <ele>1886.428</ele>
        <time>2018-12-28T11:37:16Z</time>
      </trkpt>
      <trkpt lat="35.808570" lon="-112.131310">
        <ele>1887.620</ele>
        <time>2018-12-28T11:37:36Z</time>
      </trkpt>
      <trkpt lat="35.808930" lon="-112.131330">
        <ele>1888.708</ele>
        <time>2018-12-28T11:37:56Z</time>
      </trkpt>
      <trkpt lat="35.809350" lon="-112.131360">
        <ele>1889.380</ele>
        <time>2018-12-28T11:38:16Z</time>
      </trkpt>
      <trkpt lat="35.809690" lon="-112.131390">
        <ele>1890.238</ele>
        <time>2018-12-28T11:38:36Z</time>
      </trkpt>
      <trkpt lat="35.810230" lon="-112.131430">
        <ele>1890.923</ele>
        <time>2018-12-28T11:38:56Z</time>
      </trkpt>
      <trkpt lat="35.810790" lon="-112.131460">
        <ele>1891.554</ele>
        <time>2018-12-28T11:39:16Z</time>
      </trkpt>
      <trkpt lat="35.811250" lon="-112.131500">
        <ele>1891.429</ele>
        <time>2018-12-28T11:39:36Z</time>
      </trkpt>
      <trkpt lat="35.811760" lon="-112.131540">
        <ele>1891.069</ele>
        <time>2018-12-28T11:39:56Z</time>
      </trkpt>
      <trkpt lat="35.812030" lon="-112.131560">
        <ele>1890.861</ele>
        <time>2018-12-28T11:40:16Z</time>
      </trkpt>
      <trkpt lat="35.812300" lon="-112.131580">
        <ele>1890.835</ele>
        <time>2018-12-28T11:40:36Z</time>
      </trkpt>
      <trkpt lat="35.812510" lon="-112.131600">
        <ele>1891.038</ele>
        <time>2018-12-28T11:40:56Z</time>
      </trkpt>
      <trkpt lat="35.813050" lon="-112.131650">
        <ele>1892.370</ele>
        <time>2018-12-28T11:41:16Z</time>
      </trkpt>
      <trkpt lat="35.813590" lon="-112.131690">
        <ele>1893.617</ele>
        <time>2018-12-28T11:41:36Z</time>
      </trkpt>
      <trkpt lat="35.814090" lon="-112.131720">
        <ele>1895.308</ele>
        <time>2018-12-28T11:41:56Z</time>
      </trkpt>
      <trkpt lat="35.814330" lon="-112.131740">
        <ele>1896.246</ele>
        <time>2018-12-28T11:42:16Z</time>
      </trkpt>
      <trkpt lat="35.814600" lon="-112.131750">
        <ele>1897.794</ele>
        <time>2018-12-28T11:42:36Z</time>
      </trkpt>
      <trkpt lat="35.814860" lon="-112.131770">
        <ele>1898.599</ele>
        <time>2018-12-28T11:42:56Z</time>
      </trkpt>
      <trkpt lat="35.815100" lon="-112.131790">
        <ele>1898.750</ele>
        <time>2018-12-28T11:43:16Z</time>
      </trkpt>
      <trkpt lat="35.815570" lon="-112.131820">
        <ele>1899.795</ele>
        <time>2018-12-28T11:43:36Z</time>
      </trkpt>
      <trkpt lat="35.816080" lon="-112.131860">
        <ele>1901.285</ele>
        <time>2018-12-28T11:43:56Z</time>
      </trkpt>
      <trkpt lat="35.816660" lon="-112.131900">
        <ele>1903.827</ele>
        <time>2018-12-28T11:44:16Z</time>
      </trkpt>
      <trkpt lat="35.817100" lon="-112.131930">
        <ele>1906.361</ele>
        <time>2018-12-28T11:44:36Z</time>
      </trkpt>
      <trkpt lat="35.817450" lon="-112.131950">
        <ele>1907.792</ele>
        <time>2018-12-28T11:44:56Z</time>
      </trkpt>
      <trkpt lat="35.817760" lon="-112.131970">
        <ele>1909.073</ele>
        <time>2018-12-28T11:45:16Z</time>
      </trkpt>
      <trkpt lat="35.818090" lon="-112.132000">
        <ele>1910.120</ele>
        <time>2018-12-28T11:45:36Z</time>
      </trkpt>
      <trkpt lat="35.818370" lon="-112.132010">
        <ele>1911.308</ele>
        <time>2018-12-28T11:45:56Z</time>
      </trkpt>
      <trkpt lat="35.818650" lon="-112.132030">
        <ele>1912.212</ele>
        <time>2018-12-28T11:46:16Z</time>
      </trkpt>
      <trkpt lat="35.819070" lon="-112.132050">
        <ele>1913.310</ele>
        <time>2018-12-28T11:46:36Z</time>
      </trkpt>
      <trkpt lat="35.819310" lon="-112.132060">
        <ele>1914.025</ele>
        <time>2018-12-28T11:46:56Z</time>
      </trkpt>
      <trkpt lat="35.819620" lon="-112.132070">
        <ele>1914.986</ele>
        <time>2018-12-28T11:47:16Z</time>
      </trkpt>
      <trkpt lat="35.820140" lon="-112.132090">
        <ele>1915.951</ele>
        <time>2018-12-28T11:47:36Z</time>
      </trkpt>
      <trkpt lat="35.820560" lon="-112.132090">
        <ele>1916.831</ele>
        <time>2018-12-28T11:47:56Z</time>
      </trkpt>
      <trkpt lat="35.821050" lon="-112.132100">
        <ele>1917.313</ele>
        <time>2018-12-28T11:48:16Z</time>
      </trkpt>
      <trkpt lat="35.821520" lon="-112.132100">
        <ele>1917.427</ele>
        <time>2018-12-28T11:48:36Z</time>
      </trkpt>
      <trkpt lat="35.821840" lon="-112.132100">
        <ele>1917.334</ele>
        <time>2018-12-28T11:48:56Z</time>
      </trkpt>
      <trkpt lat="35.822180" lon="-112.132090">
        <ele>1916.855</ele>
        <time>2018-12-28T11:49:16Z</time>
      </trkpt>
      <trkpt lat="35.822600" lon="-112.132090">
        <ele>1915.510</ele>
        <time>2018-12-28T11:49:36Z</time>
      </trkpt>
      <trkpt lat="35.822940" lon="-112.132090">
        <ele>1914.408</ele>
        <time>2018-12-28T11:49:56Z</time>
      </trkpt>
      <trkpt lat="35.823790" lon="-112.132070">
        <ele>1912.826</ele>
        <time>2018-12-28T11:50:16Z</time>
      </trkpt>
      <trkpt lat="35.824040" lon="-112.132070">
        <ele>1912.874</ele>
        <time>2018-12-28T11:50:36Z</time>
      </trkpt>
      <trkpt lat="35.824660" lon="-112.132060">
        <ele>1911.829</ele>
        <time>2018-12-28T11:50:56Z</time>
      </trkpt>
      <trkpt lat="35.825320" lon="-112.132050">
        <ele>1911.190</ele>
        <time>2018-12-28T11:51:16Z</time>
      </trkpt>
      <trkpt lat="35.825910" lon="-112.132040">
        <ele>1910.125</ele>
        <time>2018-12-28T11:51:36Z</time>
      </trkpt>
      <trkpt lat="35.826250" lon="-112.132030">
        <ele>1909.285</ele>
        <time>2018-12-28T11:51:56Z</time>
      </trkpt>
      <trkpt lat="35.826600" lon="-112.132030">
        <ele>1908.627</ele>
        <time>2018-12-28T11:52:16Z</time>
      </trkpt>
      <trkpt lat="35.826860" lon="-112.132030">
        <ele>1907.911</ele>
        <time>2018-12-28T11:52:36Z</time>
      </trkpt>
      <trkpt lat="35.827440" lon="-112.132020">
        <ele>1906.792</ele>
        <time>2018-12-28T11:52:56Z</time>
      </trkpt>
      <trkpt lat="35.827890" lon="-112.132010">
        <ele>1906.473</ele>
        <time>2018-12-28T11:53:16Z</time>
      </trkpt>
      <trkpt lat="35.828700" lon="-112.132000">
        <ele>1906.720</ele>
        <time>2018-12-28T11:53:36Z</time>
      </trkpt>
      <trkpt lat="35.829320" lon="-112.131990">
        <ele>1908.008</ele>
        <time>2018-12-28T11:53:56Z</time>
      </trkpt>
      <trkpt lat="35.829770" lon="-112.131980">
        <ele>1906.922</ele>
        <time>2018-12-28T11:54:16Z</time>
      </trkpt>
      <trkpt lat="35.830320" lon="-112.131980">
        <ele>1906.550</ele>
        <time>2018-12-28T11:54:36Z</time>
      </trkpt>
      <trkpt lat="35.830760" lon="-112.131970">
        <ele>1906.745</ele>
        <time>2018-12-28T11:54:56Z</time>
      </trkpt>
      <trkpt lat="35.831420" lon="-112.131960">
        <ele>1908.256</ele>
        <time>2018-12-28T11:55:16Z</time>
      </trkpt>
      <trkpt lat="35.831750" lon="-112.131950">
        <ele>1909.251</ele>
        <time>2018-12-28T11:55:36Z</time>
      </trkpt>
      <trkpt lat="35.831810" lon="-112.131950">
        <ele>1909.391</ele>
        <time>2018-12-28T11:55:56Z</time>
      </trkpt>
      <trkpt lat="35.832010" lon="-112.131940">
        <ele>1909.653</ele>
        <time>2018-12-28T11:56:16Z</time>
      </trkpt>
      <trkpt lat="35.832280" lon="-112.131930">
        <ele>1909.877</ele>
        <time>2018-12-28T11:56:36Z</time>
      </trkpt>
      <trkpt lat="35.832490" lon="-112.131920">
        <ele>1909.912</ele>
        <time>2018-12-28T11:56:56Z</time>
      </trkpt>
      <trkpt lat="35.832730" lon="-112.131920">
        <ele>1910.032</ele>
        <time>2018-12-28T11:57:16Z</time>
      </trkpt>
      <trkpt lat="35.832880" lon="-112.131910">
        <ele>1910.205</ele>
        <time>2018-12-28T11:57:36Z</time>
      </trkpt>
      <trkpt lat="35.833030" lon="-112.131910">
        <ele>1910.508</ele>
        <time>2018-12-28T11:57:56Z</time>
      </trkpt>
      <trkpt lat="35.833160" lon="-112.131910">
        <ele>1910.734</ele>
        <time>2018-12-28T11:58:16Z</time>
      </trkpt>
      <trkpt lat="35.833340" lon="-112.131910">
        <ele>1911.052</ele>
        <time>2018-12-28T11:58:36Z</time>
      </trkpt>
      <trkpt lat="35.833490" lon="-112.131900">
        <ele>1911.357</ele>
        <time>2018-12-28T11:58:56Z</time>
      </trkpt>
      <trkpt lat="35.833640" lon="-112.131900">
        <ele>1911.788</ele>
        <time>2018-12-28T11:59:16Z</time>
      </trkpt>
      <trkpt lat="35.833980" lon="-112.131900">
        <ele>1912.193</ele>
        <time>2018-12-28T11:59:36Z</time>
      </trkpt>
      <trkpt lat="35.834300" lon="-112.131890">
        <ele>1912.573</ele>
        <time>2018-12-28T11:59:56Z</time>
      </trkpt>
      <trkpt lat="35.834620" lon="-112.131890">
        <ele>1912.625</ele>
        <time>2018-12-28T12:00:16Z</time>
      </trkpt>
      <trkpt lat="35.835410" lon="-112.131880">
        <ele>1913.339</ele>
        <time>2018-12-28T12:00:36Z</time>
      </trkpt>
      <trkpt lat="35.835800" lon="-112.131870">
        <ele>1913.771</ele>
        <time>2018-12-28T12:00:56Z</time>
      </trkpt>
      <trkpt lat="35.836400" lon="-112.131870">
        <ele>1913.841</ele>
        <time>2018-12-28T12:01:16Z</time>
      </trkpt>
      <trkpt lat="35.836600" lon="-112.131870">
        <ele>1913.815</ele>
        <time>2018-12-28T12:01:36Z</time>
      </trkpt>
      <trkpt lat="35.836730" lon="-112.131870">
        <ele>1913.808</ele>
        <time>2018-12-28T12:01:56Z</time>
      </trkpt>
      <trkpt lat="35.836950" lon="-112.131880">
        <ele>1913.580</ele>
        <time>2018-12-28T12:02:16Z</time>
      </trkpt>
      <trkpt lat="35.837360" lon="-112.131890">
        <ele>1912.598</ele>
        <time>2018-12-28T12:02:36Z</time>
      </trkpt>
      <trkpt lat="35.837650" lon="-112.131890">
        <ele>1912.043</ele>
        <time>2018-12-28T12:02:56Z</time>
      </trkpt>
      <trkpt lat="35.837880" lon="-112.131900">
        <ele>1911.024</ele>
        <time>2018-12-28T12:03:16Z</time>
      </trkpt>
      <trkpt lat="35.838120" lon="-112.131910">
        <ele>1910.299</ele>
        <time>2018-12-28T12:03:36Z</time>
      </trkpt>
      <trkpt lat="35.838450" lon="-112.131930">
        <ele>1909.639</ele>
        <time>2018-12-28T12:03:56Z</time>
      </trkpt>
      <trkpt lat="35.839090" lon="-112.131960">
        <ele>1909.061</ele>
        <time>2018-12-28T12:04:16Z</time>
      </trkpt>
      <trkpt lat="35.839440" lon="-112.131980">
        <ele>1908.865</ele>
        <time>2018-12-28T12:04:36Z</time>
      </trkpt>
      <trkpt lat="35.839540" lon="-112.131990">
        <ele>1908.883</ele>
        <time>2018-12-28T12:04:56Z</time>
      </trkpt>
      <trkpt lat="35.839740" lon="-112.132000">
        <ele>1908.925</ele>
        <time>2018-12-28T12:05:16Z</time>
      </trkpt>
      <trkpt lat="35.839860" lon="-112.132010">
        <ele>1908.917</ele>
        <time>2018-12-28T12:05:36Z</time>
      </trkpt>
      <trkpt lat="35.839970" lon="-112.132020">
        <ele>1908.608</ele>
        <time>2018-12-28T12:05:56Z</time>
      </trkpt>
      <trkpt lat="35.840070" lon="-112.132030">
        <ele>1908.351</ele>
        <time>2018-12-28T12:06:16Z</time>
      </trkpt>
      <trkpt lat="35.840170" lon="-112.132040">
        <ele>1908.069</ele>
        <time>2018-12-28T12:06:36Z</time>
      </trkpt>
      <trkpt lat="35.840400" lon="-112.132060">
        <ele>1907.384</ele>
        <time>2018-12-28T12:06:56Z</time>
      </trkpt>
      <trkpt lat="35.840620" lon="-112.132090">
        <ele>1906.925</ele>
        <time>2018-12-28T12:07:16Z</time>
      </trkpt>
      <trkpt lat="35.840720" lon="-112.132100">
        <ele>1906.820</ele>
        <time>2018-12-28T12:07:36Z</time>
      </trkpt>
      <trkpt lat="35.840990" lon="-112.132120">
        <ele>1906.750</ele>
        <time>2018-12-28T12:07:56Z</time>
      </trkpt>
      <trkpt lat="35.841270" lon="-112.132160">
        <ele>1906.432</ele>
        <time>2018-12-28T12:08:16Z</time>
      </trkpt>
      <trkpt lat="35.841570" lon="-112.132200">
        <ele>1905.816</ele>
        <time>2018-12-28T12:08:36Z</time>
      </trkpt>
      <trkpt lat="35.842740" lon="-112.132340">
        <ele>1909.695</ele>
        <time>2018-12-28T12:08:56Z</time>
      </trkpt>
      <trkpt lat="35.842890" lon="-112.132360">
        <ele>1910.349</ele>
        <time>2018-12-28T12:09:16Z</time>
      </trkpt>
      <trkpt lat="35.843210" lon="-112.132410">
        <ele>1911.723</ele>
        <time>2018-12-28T12:09:36Z</time>
      </trkpt>
      <trkpt lat="35.843530" lon="-112.132450">
        <ele>1912.808</ele>
        <time>2018-12-28T12:09:56Z</time>
      </trkpt>
      <trkpt lat="35.843870" lon="-112.132500">
        <ele>1914.142</ele>
        <time>2018-12-28T12:10:16Z</time>
      </trkpt>
      <trkpt lat="35.843980" lon="-112.132510">
        <ele>1914.640</ele>
        <time>2018-12-28T12:10:36Z</time>
      </trkpt>
      <trkpt lat="35.844180" lon="-112.132540">
        <ele>1915.135</ele>
        <time>2018-12-28T12:10:56Z</time>
      </trkpt>
      <trkpt lat="35.844470" lon="-112.132580">
        <ele>1915.666</ele>
        <time>2018-12-28T12:11:16Z</time>
      </trkpt>
      <trkpt lat="35.844690" lon="-112.132610">
        <ele>1915.761</ele>
        <time>2018-12-28T12:11:36Z</time>
      </trkpt>
      <trkpt lat="35.845000" lon="-112.132650">
        <ele>1915.961</ele>
        <time>2018-12-28T12:11:56Z</time>
      </trkpt>
      <trkpt lat="35.845640" lon="-112.132740">
        <ele>1916.683</ele>
        <time>2018-12-28T12:12:16Z</time>
      </trkpt>
      <trkpt lat="35.845950" lon="-112.132780">
        <ele>1917.757</ele>
        <time>2018-12-28T12:12:36Z</time>
      </trkpt>
      <trkpt lat="35.846210" lon="-112.132820">
        <ele>1918.011</ele>
        <time>2018-12-28T12:12:56Z</time>
      </trkpt>
      <trkpt lat="35.846380" lon="-112.132840">
        <ele>1918.221</ele>
        <time>2018-12-28T12:13:16Z</time>
      </trkpt>
      <trkpt lat="35.846600" lon="-112.132870">
        <ele>1918.503</ele>
        <time>2018-12-28T12:13:36Z</time>
      </trkpt>
      <trkpt lat="35.846820" lon="-112.132900">
        <ele>1918.908</ele>
        <time>2018-12-28T12:13:56Z</time>
      </trkpt>
      <trkpt lat="35.847050" lon="-112.132930">
        <ele>1919.724</ele>
        <time>2018-12-28T12:14:16Z</time>
      </trkpt>
      <trkpt lat="35.847270" lon="-112.132960">
        <ele>1920.192</ele>
        <time>2018-12-28T12:14:36Z</time>
      </trkpt>
      <trkpt lat="35.847370" lon="-112.132970">
        <ele>1920.267</ele>
        <time>2018-12-28T12:14:56Z</time>
      </trkpt>
      <trkpt lat="35.847580" lon="-112.133000">
        <ele>1920.388</ele>
        <time>2018-12-28T12:15:16Z</time>
      </trkpt>
      <trkpt lat="35.847770" lon="-112.133020">
        <ele>1920.273</ele>
        <time>2018-12-28T12:15:36Z</time>
      </trkpt>
      <trkpt lat="35.847920" lon="-112.133040">
        <ele>1920.133</ele>
        <time>2018-12-28T12:15:56Z</time>
      </trkpt>
      <trkpt lat="35.848020" lon="-112.133060">
        <ele>1920.165</ele>
        <time>2018-12-28T12:16:16Z</time>
      </trkpt>
      <trkpt lat="35.848260" lon="-112.133090">
        <ele>1919.999</ele>
        <time>2018-12-28T12:16:36Z</time>
      </trkpt>
      <trkpt lat="35.849110" lon="-112.133210">
        <ele>1917.845</ele>
        <time>2018-12-28T12:16:56Z</time>
      </trkpt>
      <trkpt lat="35.849230" lon="-112.133230">
        <ele>1917.247</ele>
        <time>2018-12-28T12:17:16Z</time>
      </trkpt>
      <trkpt lat="35.849340" lon="-112.133250">
        <ele>1916.711</ele>
        <time>2018-12-28T12:17:36Z</time>
      </trkpt>
      <trkpt lat="35.849440" lon="-112.133260">
        <ele>1916.308</ele>
        <time>2018-12-28T12:17:56Z</time>
      </trkpt>
      <trkpt lat="35.849550" lon="-112.133280">
        <ele>1915.867</ele>
        <time>2018-12-28T12:18:16Z</time>
      </trkpt>
      <trkpt lat="35.849660" lon="-112.133290">
        <ele>1915.335</ele>
        <time>2018-12-28T12:18:36Z</time>
      </trkpt>
      <trkpt lat="35.850060" lon="-112.133350">
        <ele>1913.540</ele>
        <time>2018-12-28T12:18:56Z</time>
      </trkpt>
      <trkpt lat="35.850430" lon="-112.133390">
        <ele>1917.331</ele>
        <time>2018-12-28T12:19:16Z</time>
      </trkpt>
      <trkpt lat="35.851300" lon="-112.133500">
        <ele>1921.966</ele>
        <time>2018-12-28T12:19:36Z</time>
      </trkpt>
      <trkpt lat="35.852060" lon="-112.133580">
        <ele>1924.226</ele>
        <time>2018-12-28T12:19:56Z</time>
      </trkpt>
      <trkpt lat="35.853050" lon="-112.133650">
        <ele>1928.428</ele>
        <time>2018-12-28T12:20:16Z</time>
      </trkpt>
      <trkpt lat="35.853460" lon="-112.133670">
        <ele>1930.152</ele>
        <time>2018-12-28T12:20:36Z</time>
      </trkpt>
      <trkpt lat="35.854270" lon="-112.133700">
        <ele>1933.257</ele>
        <time>2018-12-28T12:20:56Z</time>
      </trkpt>
      <trkpt lat="35.854830" lon="-112.133710">
        <ele>1935.600</ele>
        <time>2018-12-28T12:21:16Z</time>
      </trkpt>
      <trkpt lat="35.855220" lon="-112.133710">
        <ele>1937.120</ele>
        <time>2018-12-28T12:21:36Z</time>
      </trkpt>
      <trkpt lat="35.855580" lon="-112.133700">
        <ele>1938.508</ele>
        <time>2018-12-28T12:21:56Z</time>
      </trkpt>
      <trkpt lat="35.856810" lon="-112.133660">
        <ele>1942.538</ele>
        <time>2018-12-28T12:22:16Z</time>
      </trkpt>
      <trkpt lat="35.857350" lon="-112.133630">
        <ele>1943.476</ele>
        <time>2018-12-28T12:22:36Z</time>
      </trkpt>
      <trkpt lat="35.858130" lon="-112.133590">
        <ele>1943.391</ele>
        <time>2018-12-28T12:22:56Z</time>
      </trkpt>
      <trkpt lat="35.858370" lon="-112.133570">
        <ele>1943.432</ele>
        <time>2018-12-28T12:23:16Z</time>
      </trkpt>
      <trkpt lat="35.858550" lon="-112.133560">
        <ele>1943.577</ele>
        <time>2018-12-28T12:23:36Z</time>
      </trkpt>
      <trkpt lat="35.858720" lon="-112.133550">
        <ele>1943.687</ele>
        <time>2018-12-28T12:23:56Z</time>
      </trkpt>
      <trkpt lat="35.858860" lon="-112.133540">
        <ele>1943.659</ele>
        <time>2018-12-28T12:24:16Z</time>
      </trkpt>
      <trkpt lat="35.859010" lon="-112.133530">
        <ele>1943.633</ele>
        <time>2018-12-28T12:24:36Z</time>
      </trkpt>
      <trkpt lat="35.859130" lon="-112.133520">
        <ele>1943.692</ele>
        <time>2018-12-28T12:24:56Z</time>
      </trkpt>
      <trkpt lat="35.859370" lon="-112.133510">
        <ele>1944.273</ele>
        <time>2018-12-28T12:25:16Z</time>
      </trkpt>
      <trkpt lat="35.859590" lon="-112.133490">
        <ele>1945.320</ele>
        <time>2018-12-28T12:25:36Z</time>
      </trkpt>
      <trkpt lat="35.859800" lon="-112.133480">
        <ele>1945.608</ele>
        <time>2018-12-28T12:25:56Z</time>
      </trkpt>
      <trkpt lat="35.860120" lon="-112.133450">
        <ele>1946.222</ele>
        <time>2018-12-28T12:26:16Z</time>
      </trkpt>
      <trkpt lat="35.860440" lon="-112.133440">
        <ele>1946.720</ele>
        <time>2018-12-28T12:26:36Z</time>
      </trkpt>
      <trkpt lat="35.861160" lon="-112.133390">
        <ele>1946.725</ele>
        <time>2018-12-28T12:26:56Z</time>
      </trkpt>
      <trkpt lat="35.861310" lon="-112.133380">
        <ele>1946.756</ele>
        <time>2018-12-28T12:27:16Z</time>
      </trkpt>
      <trkpt lat="35.861430" lon="-112.133380">
        <ele>1946.791</ele>
        <time>2018-12-28T12:27:36Z</time>
      </trkpt>
      <trkpt lat="35.861530" lon="-112.133370">
        <ele>1946.731</ele>
        <time>2018-12-28T12:27:56Z</time>
      </trkpt>
      <trkpt lat="35.861880" lon="-112.133350">
        <ele>1946.863</ele>
        <time>2018-12-28T12:28:16Z</time>
      </trkpt>
      <trkpt lat="35.862320" lon="-112.133310">
        <ele>1947.657</ele>
        <time>2018-12-28T12:28:36Z</time>
      </trkpt>
      <trkpt lat="35.862860" lon="-112.133280">
        <ele>1947.334</ele>
        <time>2018-12-28T12:28:56Z</time>
      </trkpt>
      <trkpt lat="35.863190" lon="-112.133260">
        <ele>1946.955</ele>
        <time>2018-12-28T12:29:16Z</time>
      </trkpt>
      <trkpt lat="35.863520" lon="-112.133230">
        <ele>1946.710</ele>
        <time>2018-12-28T12:29:36Z</time>
      </trkpt>
      <trkpt lat="35.863970" lon="-112.133210">
        <ele>1946.208</ele>
        <time>2018-12-28T12:29:56Z</time>
      </trkpt>
      <trkpt lat="35.864300" lon="-112.133190">
        <ele>1945.186</ele>
        <time>2018-12-28T12:30:16Z</time>
      </trkpt>
      <trkpt lat="35.864500" lon="-112.133180">
        <ele>1945.494</ele>
        <time>2018-12-28T12:30:36Z</time>
      </trkpt>
      <trkpt lat="35.864830" lon="-112.133150">
        <ele>1946.049</ele>
        <time>2018-12-28T12:30:56Z</time>
      </trkpt>
      <trkpt lat="35.865050" lon="-112.133140">
        <ele>1946.670</ele>
        <time>2018-12-28T12:31:16Z</time>
      </trkpt>
      <trkpt lat="35.865360" lon="-112.133120">
        <ele>1948.255</ele>
        <time>2018-12-28T12:31:36Z</time>
      </trkpt>
      <trkpt lat="35.865720" lon="-112.133090">
        <ele>1949.595</ele>
        <time>2018-12-28T12:31:56Z</time>
      </trkpt>
      <trkpt lat="35.865800" lon="-112.133090">
        <ele>1949.737</ele>
        <time>2018-12-28T12:32:16Z</time>
      </trkpt>
      <trkpt lat="35.866060" lon="-112.133070">
        <ele>1950.351</ele>
        <time>2018-12-28T12:32:36Z</time>
      </trkpt>
      <trkpt lat="35.866380" lon="-112.133050">
        <ele>1950.671</ele>
        <time>2018-12-28T12:32:56Z</time>
      </trkpt>
      <trkpt lat="35.866710" lon="-112.133030">
        <ele>1951.141</ele>
        <time>2018-12-28T12:33:16Z</time>
      </trkpt>
      <trkpt lat="35.867100" lon="-112.133010">
        <ele>1951.715</ele>
        <time>2018-12-28T12:33:36Z</time>
      </trkpt>
      <trkpt lat="35.867490" lon="-112.132980">
        <ele>1952.208</ele>
        <time>2018-12-28T12:33:56Z</time>
      </trkpt>
      <trkpt lat="35.868240" lon="-112.132940">
        <ele>1952.340</ele>
        <time>2018-12-28T12:34:16Z</time>
      </trkpt>
      <trkpt lat="35.868780" lon="-112.132900">
        <ele>1952.488</ele>
        <time>2018-12-28T12:34:36Z</time>
      </trkpt>
      <trkpt lat="35.869310" lon="-112.132870">
        <ele>1951.973</ele>
        <time>2018-12-28T12:34:56Z</time>
      </trkpt>
      <trkpt lat="35.869660" lon="-112.132840">
        <ele>1951.714</ele>
        <time>2018-12-28T12:35:16Z</time>
      </trkpt>
      <trkpt lat="35.869880" lon="-112.132830">
        <ele>1951.659</ele>
        <time>2018-12-28T12:35:36Z</time>
      </trkpt>
      <trkpt lat="35.870200" lon="-112.132810">
        <ele>1950.989</ele>
        <time>2018-12-28T12:35:56Z</time>
      </trkpt>
      <trkpt lat="35.870510" lon="-112.132790">
        <ele>1950.291</ele>
        <time>2018-12-28T12:36:16Z</time>
      </trkpt>
      <trkpt lat="35.870720" lon="-112.132780">
        <ele>1950.445</ele>
        <time>2018-12-28T12:36:36Z</time>
      </trkpt>
      <trkpt lat="35.871050" lon="-112.132750">
        <ele>1951.534</ele>
        <time>2018-12-28T12:36:56Z</time>
      </trkpt>
      <trkpt lat="35.871380" lon="-112.132730">
        <ele>1952.255</ele>
        <time>2018-12-28T12:37:16Z</time>
      </trkpt>
      <trkpt lat="35.871710" lon="-112.132700">
        <ele>1952.810</ele>
        <time>2018-12-28T12:37:36Z</time>
      </trkpt>
      <trkpt lat="35.871930" lon="-112.132690">
        <ele>1952.908</ele>
        <time>2018-12-28T12:37:56Z</time>
      </trkpt>
      <trkpt lat="35.872040" lon="-112.132680">
        <ele>1952.976</ele>
        <time>2018-12-28T12:38:16Z</time>
      </trkpt>
      <trkpt lat="35.872260" lon="-112.132670">
        <ele>1952.794</ele>
        <time>2018-12-28T12:38:36Z</time>
      </trkpt>
      <trkpt lat="35.872580" lon="-112.132650">
        <ele>1952.449</ele>
        <time>2018-12-28T12:38:56Z</time>
      </trkpt>
      <trkpt lat="35.872840" lon="-112.132640">
        <ele>1951.660</ele>
        <time>2018-12-28T12:39:16Z</time>
      </trkpt>
      <trkpt lat="35.873020" lon="-112.132630">
        <ele>1952.155</ele>
        <time>2018-12-28T12:39:36Z</time>
      </trkpt>
      <trkpt lat="35.873140" lon="-112.132620">
        <ele>1953.185</ele>
        <time>2018-12-28T12:39:56Z</time>
      </trkpt>
      <trkpt lat="35.873290" lon="-112.132610">
        <ele>1954.217</ele>
        <time>2018-12-28T12:40:16Z</time>
      </trkpt>
      <trkpt lat="35.873490" lon="-112.132590">
        <ele>1955.731</ele>
        <time>2018-12-28T12:40:36Z</time>
      </trkpt>
      <trkpt lat="35.873620" lon="-112.132580">
        <ele>1956.241</ele>
        <time>2018-12-28T12:40:56Z</time>
      </trkpt>
      <trkpt lat="35.874580" lon="-112.132520">
        <ele>1960.181</ele>
        <time>2018-12-28T12:41:16Z</time>
      </trkpt>
      <trkpt lat="35.875200" lon="-112.132480">
        <ele>1962.109</ele>
        <time>2018-12-28T12:41:36Z</time>
      </trkpt>
      <trkpt lat="35.875950" lon="-112.132440">
        <ele>1964.008</ele>
        <time>2018-12-28T12:41:56Z</time>
      </trkpt>
      <trkpt lat="35.876990" lon="-112.132370">
        <ele>1967.357</ele>
        <time>2018-12-28T12:42:16Z</time>
      </trkpt>
      <trkpt lat="35.877850" lon="-112.132310">
        <ele>1968.935</ele>
        <time>2018-12-28T12:42:36Z</time>
      </trkpt>
      <trkpt lat="35.878450" lon="-112.132270">
        <ele>1969.920</ele>
        <time>2018-12-28T12:42:56Z</time>
      </trkpt>
      <trkpt lat="35.879090" lon="-112.132230">
        <ele>1971.741</ele>
        <time>2018-12-28T12:43:16Z</time>
      </trkpt>
      <trkpt lat="35.879820" lon="-112.132180">
        <ele>1974.686</ele>
        <time>2018-12-28T12:43:36Z</time>
      </trkpt>
      <trkpt lat="35.880720" lon="-112.132110">
        <ele>1976.856</ele>
        <time>2018-12-28T12:43:56Z</time>
      </trkpt>
      <trkpt lat="35.881350" lon="-112.132060">
        <ele>1978.688</ele>
        <time>2018-12-28T12:44:16Z</time>
      </trkpt>
      <trkpt lat="35.881930" lon="-112.132010">
        <ele>1980.392</ele>
        <time>2018-12-28T12:44:36Z</time>
      </trkpt>
      <trkpt lat="35.882280" lon="-112.131970">
        <ele>1980.733</ele>
        <time>2018-12-28T12:44:56Z</time>
      </trkpt>
      <trkpt lat="35.882650" lon="-112.131940">
        <ele>1979.523</ele>
        <time>2018-12-28T12:45:16Z</time>
      </trkpt>
      <trkpt lat="35.882990" lon="-112.131900">
        <ele>1979.415</ele>
        <time>2018-12-28T12:45:36Z</time>
      </trkpt>
      <trkpt lat="35.883400" lon="-112.131860">
        <ele>1978.608</ele>
        <time>2018-12-28T12:45:56Z</time>
      </trkpt>
      <trkpt lat="35.884070" lon="-112.131780">
        <ele>1976.366</ele>
        <time>2018-12-28T12:46:16Z</time>
      </trkpt>
      <trkpt lat="35.884580" lon="-112.131720">
        <ele>1973.124</ele>
        <time>2018-12-28T12:46:36Z</time>
      </trkpt>
      <trkpt lat="35.886310" lon="-112.131480">
        <ele>1970.879</ele>
        <time>2018-12-28T12:46:56Z</time>
      </trkpt>
      <trkpt lat="35.886990" lon="-112.131380">
        <ele>1971.690</ele>
        <time>2018-12-28T12:47:16Z</time>
      </trkpt>
      <trkpt lat="35.888520" lon="-112.131120">
        <ele>1973.935</ele>
        <time>2018-12-28T12:47:36Z</time>
      </trkpt>
      <trkpt lat="35.889340" lon="-112.130980">
        <ele>1974.615</ele>
        <time>2018-12-28T12:47:56Z</time>
      </trkpt>
      <trkpt lat="35.890170" lon="-112.130840">
        <ele>1978.257</ele>
        <time>2018-12-28T12:48:16Z</time>
      </trkpt>
      <trkpt lat="35.891030" lon="-112.130700">
        <ele>1978.461</ele>
        <time>2018-12-28T12:48:36Z</time>
      </trkpt>
      <trkpt lat="35.892120" lon="-112.130520">
        <ele>1982.067</ele>
        <time>2018-12-28T12:48:56Z</time>
      </trkpt>
      <trkpt lat="35.892790" lon="-112.130430">
        <ele>1985.081</ele>
        <time>2018-12-28T12:49:16Z</time>
      </trkpt>
      <trkpt lat="35.893090" lon="-112.130390">
        <ele>1986.319</ele>
        <time>2018-12-28T12:49:36Z</time>
      </trkpt>
      <trkpt lat="35.893940" lon="-112.130270">
        <ele>1990.808</ele>
        <time>2018-12-28T12:49:56Z</time>
      </trkpt>
      <trkpt lat="35.894250" lon="-112.130230">
        <ele>1993.159</ele>
        <time>2018-12-28T12:50:16Z</time>
      </trkpt>
      <trkpt lat="35.894750" lon="-112.130170">
        <ele>1994.237</ele>
        <time>2018-12-28T12:50:36Z</time>
      </trkpt>
      <trkpt lat="35.895490" lon="-112.130080">
        <ele>1996.442</ele>
        <time>2018-12-28T12:50:56Z</time>
      </trkpt>
      <trkpt lat="35.896100" lon="-112.130020">
        <ele>1995.543</ele>
        <time>2018-12-28T12:51:16Z</time>
      </trkpt>
      <trkpt lat="35.896610" lon="-112.129970">
        <ele>1995.528</ele>
        <time>2018-12-28T12:51:36Z</time>
      </trkpt>
      <trkpt lat="35.897230" lon="-112.129910">
        <ele>1996.818</ele>
        <time>2018-12-28T12:51:56Z</time>
      </trkpt>
      <trkpt lat="35.897690" lon="-112.129860">
        <ele>1998.160</ele>
        <time>2018-12-28T12:52:16Z</time>
      </trkpt>
      <trkpt lat="35.898140" lon="-112.129820">
        <ele>1999.274</ele>
        <time>2018-12-28T12:52:36Z</time>
      </trkpt>
      <trkpt lat="35.898640" lon="-112.129790">
        <ele>1999.451</ele>
        <time>2018-12-28T12:52:56Z</time>
      </trkpt>
      <trkpt lat="35.899250" lon="-112.129740">
        <ele>1998.501</ele>
        <time>2018-12-28T12:53:16Z</time>
      </trkpt>
      <trkpt lat="35.899730" lon="-112.129710">
        <ele>1998.111</ele>
        <time>2018-12-28T12:53:36Z</time>
      </trkpt>
      <trkpt lat="35.900320" lon="-112.129680">
        <ele>2000.608</ele>
        <time>2018-12-28T12:53:56Z</time>
      </trkpt>
      <trkpt lat="35.901100" lon="-112.129640">
        <ele>2002.118</ele>
        <time>2018-12-28T12:54:16Z</time>
      </trkpt>
      <trkpt lat="35.901980" lon="-112.129590">
        <ele>2006.096</ele>
        <time>2018-12-28T12:54:36Z</time>
      </trkpt>
      <trkpt lat="35.902550" lon="-112.129570">
        <ele>2008.761</ele>
        <time>2018-12-28T12:54:56Z</time>
      </trkpt>
      <trkpt lat="35.902750" lon="-112.129570">
        <ele>2009.152</ele>
        <time>2018-12-28T12:55:16Z</time>
      </trkpt>
      <trkpt lat="35.904080" lon="-112.129540">
        <ele>2012.847</ele>
        <time>2018-12-28T12:55:36Z</time>
      </trkpt>
      <trkpt lat="35.904950" lon="-112.129530">
        <ele>2015.777</ele>
        <time>2018-12-28T12:55:56Z</time>
      </trkpt>
      <trkpt lat="35.905920" lon="-112.129530">
        <ele>2019.889</ele>
        <time>2018-12-28T12:56:16Z</time>
      </trkpt>
      <trkpt lat="35.906400" lon="-112.129530">
        <ele>2022.223</ele>
        <time>2018-12-28T12:56:36Z</time>
      </trkpt>
      <trkpt lat="35.907120" lon="-112.129540">
        <ele>2024.064</ele>
        <time>2018-12-28T12:56:56Z</time>
      </trkpt>
      <trkpt lat="35.907690" lon="-112.129550">
        <ele>2023.506</ele>
        <time>2018-12-28T12:57:16Z</time>
      </trkpt>
      <trkpt lat="35.908360" lon="-112.129570">
        <ele>2023.116</ele>
        <time>2018-12-28T12:57:36Z</time>
      </trkpt>
      <trkpt lat="35.909360" lon="-112.129610">
        <ele>2022.608</ele>
        <time>2018-12-28T12:57:56Z</time>
      </trkpt>
      <trkpt lat="35.911590" lon="-112.129710">
        <ele>2019.559</ele>
        <time>2018-12-28T12:58:16Z</time>
      </trkpt>
      <trkpt lat="35.913450" lon="-112.129800">
        <ele>2017.437</ele>
        <time>2018-12-28T12:58:36Z</time>
      </trkpt>
      <trkpt lat="35.915430" lon="-112.129890">
        <ele>2015.792</ele>
        <time>2018-12-28T12:58:56Z</time>
      </trkpt>
      <trkpt lat="35.925620" lon="-112.130380">
        <ele>2008.653</ele>
        <time>2018-12-28T12:59:16Z</time>
      </trkpt>
      <trkpt lat="35.926470" lon="-112.130420">
        <ele>2008.728</ele>
        <time>2018-12-28T12:59:36Z</time>
      </trkpt>
      <trkpt lat="35.927080" lon="-112.130450">
        <ele>2009.428</ele>
        <time>2018-12-28T12:59:56Z</time>
      </trkpt>
      <trkpt lat="35.927400" lon="-112.130470">
        <ele>2009.790</ele>
        <time>2018-12-28T13:00:16Z</time>
      </trkpt>
      <trkpt lat="35.928310" lon="-112.130510">
        <ele>2013.714</ele>
        <time>2018-12-28T13:00:36Z</time>
      </trkpt>
      <trkpt lat="35.929080" lon="-112.130540">
        <ele>2016.445</ele>
        <time>2018-12-28T13:00:56Z</time>
      </trkpt>
      <trkpt lat="35.929600" lon="-112.130560">
        <ele>2017.947</ele>
        <time>2018-12-28T13:01:16Z</time>
      </trkpt>
      <trkpt lat="35.929910" lon="-112.130580">
        <ele>2018.411</ele>
        <time>2018-12-28T13:01:36Z</time>
      </trkpt>
      <trkpt lat="35.930470" lon="-112.130600">
        <ele>2018.008</ele>
        <time>2018-12-28T13:01:56Z</time>
      </trkpt>
      <trkpt lat="35.931820" lon="-112.130670">
        <ele>2014.887</ele>
        <time>2018-12-28T13:02:16Z</time>
      </trkpt>
      <trkpt lat="35.932430" lon="-112.130700">
        <ele>2013.445</ele>
        <time>2018-12-28T13:02:36Z</time>
      </trkpt>
      <trkpt lat="35.932980" lon="-112.130730">
        <ele>2012.830</ele>
        <time>2018-12-28T13:02:56Z</time>
      </trkpt>
      <trkpt lat="35.933300" lon="-112.130740">
        <ele>2012.651</ele>
        <time>2018-12-28T13:03:16Z</time>
      </trkpt>
      <trkpt lat="35.933620" lon="-112.130760">
        <ele>2012.286</ele>
        <time>2018-12-28T13:03:36Z</time>
      </trkpt>
      <trkpt lat="35.933830" lon="-112.130770">
        <ele>2012.566</ele>
        <time>2018-12-28T13:03:56Z</time>
      </trkpt>
      <trkpt lat="35.933970" lon="-112.130780">
        <ele>2013.168</ele>
        <time>2018-12-28T13:04:16Z</time>
      </trkpt>
      <trkpt lat="35.934190" lon="-112.130780">
        <ele>2014.242</ele>
        <time>2018-12-28T13:04:36Z</time>
      </trkpt>
      <trkpt lat="35.934450" lon="-112.130800">
        <ele>2015.061</ele>
        <time>2018-12-28T13:04:56Z</time>
      </trkpt>
      <trkpt lat="35.934740" lon="-112.130810">
        <ele>2015.221</ele>
        <time>2018-12-28T13:05:16Z</time>
      </trkpt>
      <trkpt lat="35.935110" lon="-112.130830">
        <ele>2015.613</ele>
        <time>2018-12-28T13:05:36Z</time>
      </trkpt>
      <trkpt lat="35.935430" lon="-112.130850">
        <ele>2015.908</ele>
        <time>2018-12-28T13:05:56Z</time>
      </trkpt>
      <trkpt lat="35.935590" lon="-112.130850">
        <ele>2016.539</ele>
        <time>2018-12-28T13:06:16Z</time>
      </trkpt>
      <trkpt lat="35.935860" lon="-112.130870">
        <ele>2016.697</ele>
        <time>2018-12-28T13:06:36Z</time>
      </trkpt>
      <trkpt lat="35.936190" lon="-112.130880">
        <ele>2016.492</ele>
        <time>2018-12-28T13:06:56Z</time>
      </trkpt>
      <trkpt lat="35.936210" lon="-112.130870">
        <ele>2016.443</ele>
        <time>2018-12-28T13:07:16Z</time>
      </trkpt>
      <trkpt lat="35.936220" lon="-112.130860">
        <ele>2016.598</ele>
        <time>2018-12-28T13:07:36Z</time>
      </trkpt>
      <trkpt lat="35.936230" lon="-112.130860">
        <ele>2016.578</ele>
        <time>2018-12-28T13:07:56Z</time>
      </trkpt>
      <trkpt lat="35.936240" lon="-112.130850">
        <ele>2016.590</ele>
        <time>2018-12-28T13:08:16Z</time>
      </trkpt>
      <trkpt lat="35.936320" lon="-112.130850">
        <ele>2017.064</ele>
        <time>2018-12-28T13:08:36Z</time>
      </trkpt>
      <trkpt lat="35.936900" lon="-112.130880">
        <ele>2018.842</ele>
        <time>2018-12-28T13:08:56Z</time>
      </trkpt>
      <trkpt lat="35.937390" lon="-112.130890">
        <ele>2019.522</ele>
        <time>2018-12-28T13:09:16Z</time>
      </trkpt>
      <trkpt lat="35.937960" lon="-112.130920">
        <ele>2021.014</ele>
        <time>2018-12-28T13:09:36Z</time>
      </trkpt>
      <trkpt lat="35.939070" lon="-112.130970">
        <ele>2023.208</ele>
        <time>2018-12-28T13:09:56Z</time>
      </trkpt>
      <trkpt lat="35.939140" lon="-112.130980">
        <ele>2023.237</ele>
        <time>2018-12-28T13:10:16Z</time>
      </trkpt>
      <trkpt lat="35.939340" lon="-112.131020">
        <ele>2022.915</ele>
        <time>2018-12-28T13:10:36Z</time>
      </trkpt>
      <trkpt lat="35.939440" lon="-112.131020">
        <ele>2022.810</ele>
        <time>2018-12-28T13:10:56Z</time>
      </trkpt>
      <trkpt lat="35.940000" lon="-112.131050">
        <ele>2024.071</ele>
        <time>2018-12-28T13:11:16Z</time>
      </trkpt>
      <trkpt lat="35.941320" lon="-112.131110">
        <ele>2028.896</ele>
        <time>2018-12-28T13:11:36Z</time>
      </trkpt>
      <trkpt lat="35.942680" lon="-112.131190">
        <ele>2033.786</ele>
        <time>2018-12-28T13:11:56Z</time>
      </trkpt>
      <trkpt lat="35.944530" lon="-112.131280">
        <ele>2033.698</ele>
        <time>2018-12-28T13:12:16Z</time>
      </trkpt>
      <trkpt lat="35.945640" lon="-112.131330">
        <ele>2033.052</ele>
        <time>2018-12-28T13:12:36Z</time>
      </trkpt>
      <trkpt lat="35.946280" lon="-112.131370">
        <ele>2031.741</ele>
        <time>2018-12-28T13:12:56Z</time>
      </trkpt>
      <trkpt lat="35.946830" lon="-112.131390">
        <ele>2030.981</ele>
        <time>2018-12-28T13:13:16Z</time>
      </trkpt>
      <trkpt lat="35.947270" lon="-112.131410">
        <ele>2031.009</ele>
        <time>2018-12-28T13:13:36Z</time>
      </trkpt>
      <trkpt lat="35.948040" lon="-112.131450">
        <ele>2031.708</ele>
        <time>2018-12-28T13:13:56Z</time>
      </trkpt>
      <trkpt lat="35.948370" lon="-112.131470">
        <ele>2031.957</ele>
        <time>2018-12-28T13:14:16Z</time>
      </trkpt>
      <trkpt lat="35.948700" lon="-112.131480">
        <ele>2032.145</ele>
        <time>2018-12-28T13:14:36Z</time>
      </trkpt>
      <trkpt lat="35.948920" lon="-112.131490">
        <ele>2032.270</ele>
        <time>2018-12-28T13:14:56Z</time>
      </trkpt>
      <trkpt lat="35.949240" lon="-112.131510">
        <ele>2032.421</ele>
        <time>2018-12-28T13:15:16Z</time>
      </trkpt>
      <trkpt lat="35.949570" lon="-112.131520">
        <ele>2032.596</ele>
        <time>2018-12-28T13:15:36Z</time>
      </trkpt>
      <trkpt lat="35.950000" lon="-112.131540">
        <ele>2032.696</ele>
        <time>2018-12-28T13:15:56Z</time>
      </trkpt>
      <trkpt lat="35.950350" lon="-112.131560">
        <ele>2032.848</ele>
        <time>2018-12-28T13:16:16Z</time>
      </trkpt>
      <trkpt lat="35.950880" lon="-112.131580">
        <ele>2033.532</ele>
        <time>2018-12-28T13:16:36Z</time>
      </trkpt>
      <trkpt lat="35.951280" lon="-112.131600">
        <ele>2034.319</ele>
        <time>2018-12-28T13:16:56Z</time>
      </trkpt>
      <trkpt lat="35.951680" lon="-112.131620">
        <ele>2035.109</ele>
        <time>2018-12-28T13:17:16Z</time>
      </trkpt>
      <trkpt lat="35.951790" lon="-112.131630">
        <ele>2035.319</ele>
        <time>2018-12-28T13:17:36Z</time>
      </trkpt>
      <trkpt lat="35.952090" lon="-112.131650">
        <ele>2035.208</ele>
        <time>2018-12-28T13:17:56Z</time>
      </trkpt>
      <trkpt lat="35.952320" lon="-112.131670">
        <ele>2034.774</ele>
        <time>2018-12-28T13:18:16Z</time>
      </trkpt>
      <trkpt lat="35.953490" lon="-112.131730">
        <ele>2032.952</ele>
        <time>2018-12-28T13:18:36Z</time>
      </trkpt>
      <trkpt lat="35.955450" lon="-112.131820">
        <ele>2028.317</ele>
        <time>2018-12-28T13:18:56Z</time>
      </trkpt>
      <trkpt lat="35.955660" lon="-112.131790">
        <ele>2027.238</ele>
        <time>2018-12-28T13:19:16Z</time>
      </trkpt>
      <trkpt lat="35.955970" lon="-112.131800">
        <ele>2026.893</ele>
        <time>2018-12-28T13:19:36Z</time>
      </trkpt>
      <trkpt lat="35.956310" lon="-112.131810">
        <ele>2025.553</ele>
        <time>2018-12-28T13:19:56Z</time>
      </trkpt>
      <trkpt lat="35.956570" lon="-112.131820">
        <ele>2025.025</ele>
        <time>2018-12-28T13:20:16Z</time>
      </trkpt>
      <trkpt lat="35.956740" lon="-112.131840">
        <ele>2024.999</ele>
        <time>2018-12-28T13:20:36Z</time>
      </trkpt>
      <trkpt lat="35.957280" lon="-112.131860">
        <ele>2024.864</ele>
        <time>2018-12-28T13:20:56Z</time>
      </trkpt>
      <trkpt lat="35.958030" lon="-112.131870">
        <ele>2026.506</ele>
        <time>2018-12-28T13:21:16Z</time>
      </trkpt>
      <trkpt lat="35.958500" lon="-112.131860">
        <ele>2027.916</ele>
        <time>2018-12-28T13:21:36Z</time>
      </trkpt>
      <trkpt lat="35.958770" lon="-112.131880">
        <ele>2028.408</ele>
        <time>2018-12-28T13:21:56Z</time>
      </trkpt>
      <trkpt lat="35.959020" lon="-112.131870">
        <ele>2028.899</ele>
        <time>2018-12-28T13:22:16Z</time>
      </trkpt>
      <trkpt lat="35.959410" lon="-112.131850">
        <ele>2029.947</ele>
        <time>2018-12-28T13:22:36Z</time>
      </trkpt>
      <trkpt lat="35.959800" lon="-112.131810">
        <ele>2031.852</ele>
        <time>2018-12-28T13:22:56Z</time>
      </trkpt>
      <trkpt lat="35.960080" lon="-112.131770">
        <ele>2033.193</ele>
        <time>2018-12-28T13:23:16Z</time>
      </trkpt>
      <trkpt lat="35.960380" lon="-112.131730">
        <ele>2034.058</ele>
        <time>2018-12-28T13:23:36Z</time>
      </trkpt>
      <trkpt lat="35.960710" lon="-112.131680">
        <ele>2034.178</ele>
        <time>2018-12-28T13:23:56Z</time>
      </trkpt>
      <trkpt lat="35.961050" lon="-112.131620">
        <ele>2033.350</ele>
        <time>2018-12-28T13:24:16Z</time>
      </trkpt>
      <trkpt lat="35.961260" lon="-112.131580">
        <ele>2032.964</ele>
        <time>2018-12-28T13:24:36Z</time>
      </trkpt>
      <trkpt lat="35.961540" lon="-112.131530">
        <ele>2031.756</ele>
        <time>2018-12-28T13:24:56Z</time>
      </trkpt>
      <trkpt lat="35.962060" lon="-112.131410">
        <ele>2029.659</ele>
        <time>2018-12-28T13:25:16Z</time>
      </trkpt>
      <trkpt lat="35.962410" lon="-112.131310">
        <ele>2030.214</ele>
        <time>2018-12-28T13:25:36Z</time>
      </trkpt>
      <trkpt lat="35.962590" lon="-112.131260">
        <ele>2030.308</ele>
        <time>2018-12-28T13:25:56Z</time>
      </trkpt>
      <trkpt lat="35.962830" lon="-112.131190">
        <ele>2029.038</ele>
        <time>2018-12-28T13:26:16Z</time>
      </trkpt>
      <trkpt lat="35.963220" lon="-112.131080">
        <ele>2026.396</ele>
        <time>2018-12-28T13:26:36Z</time>
      </trkpt>
      <trkpt lat="35.963430" lon="-112.130970">
        <ele>2026.121</ele>
        <time>2018-12-28T13:26:56Z</time>
      </trkpt>
      <trkpt lat="35.963550" lon="-112.130930">
        <ele>2025.562</ele>
        <time>2018-12-28T13:27:16Z</time>
      </trkpt>
      <trkpt lat="35.964030" lon="-112.130760">
        <ele>2023.167</ele>
        <time>2018-12-28T13:27:36Z</time>
      </trkpt>
      <trkpt lat="35.964270" lon="-112.130680">
        <ele>2022.737</ele>
        <time>2018-12-28T13:27:56Z</time>
      </trkpt>
      <trkpt lat="35.964370" lon="-112.130640">
        <ele>2021.599</ele>
        <time>2018-12-28T13:28:16Z</time>
      </trkpt>
      <trkpt lat="35.964580" lon="-112.130570">
        <ele>2018.973</ele>
        <time>2018-12-28T13:28:36Z</time>
      </trkpt>
      <trkpt lat="35.964790" lon="-112.130480">
        <ele>2018.749</ele>
        <time>2018-12-28T13:28:56Z</time>
      </trkpt>
      <trkpt lat="35.964890" lon="-112.130430">
        <ele>2018.702</ele>
        <time>2018-12-28T13:29:16Z</time>
      </trkpt>
      <trkpt lat="35.965080" lon="-112.130330">
        <ele>2017.622</ele>
        <time>2018-12-28T13:29:36Z</time>
      </trkpt>
      <trkpt lat="35.965270" lon="-112.130240">
        <ele>2017.508</ele>
        <time>2018-12-28T13:29:56Z</time>
      </trkpt>
      <trkpt lat="35.965490" lon="-112.130130">
        <ele>2017.737</ele>
        <time>2018-12-28T13:30:16Z</time>
      </trkpt>
      <trkpt lat="35.966050" lon="-112.129860">
        <ele>2016.635</ele>
        <time>2018-12-28T13:30:36Z</time>
      </trkpt>
      <trkpt lat="35.966330" lon="-112.129720">
        <ele>2015.950</ele>
        <time>2018-12-28T13:30:56Z</time>
      </trkpt>
      <trkpt lat="35.966480" lon="-112.129630">
        <ele>2015.781</ele>
        <time>2018-12-28T13:31:16Z</time>
      </trkpt>
      <trkpt lat="35.966550" lon="-112.129580">
        <ele>2015.596</ele>
        <time>2018-12-28T13:31:36Z</time>
      </trkpt>
      <trkpt lat="35.966650" lon="-112.129510">
        <ele>2015.476</ele>
        <time>2018-12-28T13:31:56Z</time>
      </trkpt>
      <trkpt lat="35.966770" lon="-112.129440">
        <ele>2015.268</ele>
        <time>2018-12-28T13:32:16Z</time>
      </trkpt>
      <trkpt lat="35.966870" lon="-112.129370">
        <ele>2015.042</ele>
        <time>2018-12-28T13:32:36Z</time>
      </trkpt>
      <trkpt lat="35.966970" lon="-112.129320">
        <ele>2014.862</ele>
        <time>2018-12-28T13:32:56Z</time>
      </trkpt>
      <trkpt lat="35.967070" lon="-112.129280">
        <ele>2014.483</ele>
        <time>2018-12-28T13:33:16Z</time>
      </trkpt>
      <trkpt lat="35.967180" lon="-112.129240">
        <ele>2014.211</ele>
        <time>2018-12-28T13:33:36Z</time>
      </trkpt>
      <trkpt lat="35.967260" lon="-112.129210">
        <ele>2013.908</ele>
        <time>2018-12-28T13:33:56Z</time>
      </trkpt>
      <trkpt lat="35.967360" lon="-112.129190">
        <ele>2013.419</ele>
        <time>2018-12-28T13:34:16Z</time>
      </trkpt>
      <trkpt lat="35.967440" lon="-112.129170">
        <ele>2012.987</ele>
        <time>2018-12-28T13:34:36Z</time>
      </trkpt>
      <trkpt lat="35.967510" lon="-112.129160">
        <ele>2012.522</ele>
        <time>2018-12-28T13:34:56Z</time>
      </trkpt>
      <trkpt lat="35.967570" lon="-112.129140">
        <ele>2012.183</ele>
        <time>2018-12-28T13:35:16Z</time>
      </trkpt>
      <trkpt lat="35.967620" lon="-112.129120">
        <ele>2011.818</ele>
        <time>2018-12-28T13:35:36Z</time>
      </trkpt>
      <trkpt lat="35.967660" lon="-112.129100">
        <ele>2011.738</ele>
        <time>2018-12-28T13:35:56Z</time>
      </trkpt>
      <trkpt lat="35.967690" lon="-112.129070">
        <ele>2011.630</ele>
        <time>2018-12-28T13:36:16Z</time>
      </trkpt>
      <trkpt lat="35.967790" lon="-112.128970">
        <ele>2011.424</ele>
        <time>2018-12-28T13:36:36Z</time>
      </trkpt>
      <trkpt lat="35.967788" lon="-112.128972">
        <ele>2011.447</ele>
        <time>2018-12-28T13:36:56Z</time>
      </trkpt>
      <trkpt lat="35.967790" lon="-112.128950">
        <ele>2011.529</ele>
        <time>2018-12-28T13:37:16Z</time>
      </trkpt>
      <trkpt lat="35.967790" lon="-112.128920">
        <ele>2011.621</ele>
        <time>2018-12-28T13:37:36Z</time>
      </trkpt>
      <trkpt lat="35.967790" lon="-112.128900">
        <ele>2011.608</ele>
        <time>2018-12-28T13:37:56Z</time>
      </trkpt>
      <trkpt lat="35.967800" lon="-112.128880">
        <ele>2011.677</ele>
        <time>2018-12-28T13:38:16Z</time>
      </trkpt>
      <trkpt lat="35.967810" lon="-112.128850">
        <ele>2011.755</ele>
        <time>2018-12-28T13:38:36Z</time>
      </trkpt>
      <trkpt lat="35.967810" lon="-112.128830">
        <ele>2011.740</ele>
        <time>2018-12-28T13:38:56Z</time>
      </trkpt>
      <trkpt lat="35.967830" lon="-112.128810">
        <ele>2011.781</ele>
        <time>2018-12-28T13:39:16Z</time>
      </trkpt>
      <trkpt lat="35.967840" lon="-112.128790">
        <ele>2011.816</ele>
        <time>2018-12-28T13:39:36Z</time>
      </trkpt>
      <trkpt lat="35.967850" lon="-112.128770">
        <ele>2011.816</ele>
        <time>2018-12-28T13:39:56Z</time>
      </trkpt>
      <trkpt lat="35.967870" lon="-112.128760">
        <ele>2011.798</ele>
        <time>2018-12-28T13:40:16Z</time>
      </trkpt>
      <trkpt lat="35.967880" lon="-112.128750">
        <ele>2011.842</ele>
        <time>2018-12-28T13:40:36Z</time>
      </trkpt>
      <trkpt lat="35.967900" lon="-112.128740">
        <ele>2011.764</ele>
        <time>2018-12-28T13:40:56Z</time>
      </trkpt>
      <trkpt lat="35.967910" lon="-112.128730">
        <ele>2011.706</ele>
        <time>2018-12-28T13:41:16Z</time>
      </trkpt>
      <trkpt lat="35.967930" lon="-112.128720">
        <ele>2011.716</ele>
        <time>2018-12-28T13:41:36Z</time>
      </trkpt>
      <trkpt lat="35.967950" lon="-112.128710">
        <ele>2011.608</ele>
        <time>2018-12-28T13:41:56Z</time>
      </trkpt>
      <trkpt lat="35.967960" lon="-112.128710">
        <ele>2011.669</ele>
        <time>2018-12-28T13:42:16Z</time>
      </trkpt>
      <trkpt lat="35.967990" lon="-112.128710">
        <ele>2011.487</ele>
        <time>2018-12-28T13:42:36Z</time>
      </trkpt>
      <trkpt lat="35.968110" lon="-112.128670">
        <ele>2011.012</ele>
        <time>2018-12-28T13:42:56Z</time>
      </trkpt>
      <trkpt lat="35.968310" lon="-112.128630">
        <ele>2010.333</ele>
        <time>2018-12-28T13:43:16Z</time>
      </trkpt>
      <trkpt lat="35.968430" lon="-112.128600">
        <ele>2009.968</ele>
        <time>2018-12-28T13:43:36Z</time>
      </trkpt>
      <trkpt lat="35.968790" lon="-112.128490">
        <ele>2009.448</ele>
        <time>2018-12-28T13:43:56Z</time>
      </trkpt>
      <trkpt lat="35.969220" lon="-112.128310">
        <ele>2009.160</ele>
        <time>2018-12-28T13:44:16Z</time>
      </trkpt>
      <trkpt lat="35.969520" lon="-112.128160">
        <ele>2008.834</ele>
        <time>2018-12-28T13:44:36Z</time>
      </trkpt>
      <trkpt lat="35.969570" lon="-112.128140">
        <ele>2008.797</ele>
        <time>2018-12-28T13:44:56Z</time>
      </trkpt>
      <trkpt lat="35.970020" lon="-112.127920">
        <ele>2007.823</ele>
        <time>2018-12-28T13:45:16Z</time>
      </trkpt>
      <trkpt lat="35.970180" lon="-112.127850">
        <ele>2007.725</ele>
        <time>2018-12-28T13:45:36Z</time>
      </trkpt>
      <trkpt lat="35.970380" lon="-112.127750">
        <ele>2007.708</ele>
        <time>2018-12-28T13:45:56Z</time>
      </trkpt>
      <trkpt lat="35.970830" lon="-112.127530">
        <ele>2007.952</ele>
        <time>2018-12-28T13:46:16Z</time>
      </trkpt>
      <trkpt lat="35.970880" lon="-112.127510">
        <ele>2007.970</ele>
        <time>2018-12-28T13:46:36Z</time>
      </trkpt>
      <trkpt lat="35.971210" lon="-112.127350">
        <ele>2008.085</ele>
        <time>2018-12-28T13:46:56Z</time>
      </trkpt>
      <trkpt lat="35.971340" lon="-112.127290">
        <ele>2008.136</ele>
        <time>2018-12-28T13:47:16Z</time>
      </trkpt>
      <trkpt lat="35.971480" lon="-112.127280">
        <ele>2008.161</ele>
        <time>2018-12-28T13:47:36Z</time>
      </trkpt>
      <trkpt lat="35.972110" lon="-112.126980">
        <ele>2009.451</ele>
        <time>2018-12-28T13:47:56Z</time>
      </trkpt>
      <trkpt lat="35.972380" lon="-112.126850">
        <ele>2009.633</ele>
        <time>2018-12-28T13:48:16Z</time>
      </trkpt>
      <trkpt lat="35.972670" lon="-112.126720">
        <ele>2009.617</ele>
        <time>2018-12-28T13:48:36Z</time>
      </trkpt>
      <trkpt lat="35.973000" lon="-112.126560">
        <ele>2009.267</ele>
        <time>2018-12-28T13:48:56Z</time>
      </trkpt>
      <trkpt lat="35.973460" lon="-112.126340">
        <ele>2009.781</ele>
        <time>2018-12-28T13:49:16Z</time>
      </trkpt>
      <trkpt lat="35.973650" lon="-112.126250">
        <ele>2009.819</ele>
        <time>2018-12-28T13:49:36Z</time>
      </trkpt>
      <trkpt lat="35.973770" lon="-112.126120">
        <ele>2009.808</ele>
        <time>2018-12-28T13:49:56Z</time>
      </trkpt>
      <trkpt lat="35.973890" lon="-112.126060">
        <ele>2009.879</ele>
        <time>2018-12-28T13:50:16Z</time>
      </trkpt>
      <trkpt lat="35.974240" lon="-112.125890">
        <ele>2010.387</ele>
        <time>2018-12-28T13:50:36Z</time>
      </trkpt>
      <trkpt lat="35.974530" lon="-112.125760">
        <ele>2010.792</ele>
        <time>2018-12-28T13:50:56Z</time>
      </trkpt>
      <trkpt lat="35.974810" lon="-112.125630">
        <ele>2011.253</ele>
        <time>2018-12-28T13:51:16Z</time>
      </trkpt>
      <trkpt lat="35.975390" lon="-112.125370">
        <ele>2012.678</ele>
        <time>2018-12-28T13:51:36Z</time>
      </trkpt>
      <trkpt lat="35.975520" lon="-112.125310">
        <ele>2012.798</ele>
        <time>2018-12-28T13:51:56Z</time>
      </trkpt>
      <trkpt lat="35.975820" lon="-112.125240">
        <ele>2013.030</ele>
        <time>2018-12-28T13:52:16Z</time>
      </trkpt>
      <trkpt lat="35.976030" lon="-112.125200">
        <ele>2013.514</ele>
        <time>2018-12-28T13:52:36Z</time>
      </trkpt>
      <trkpt lat="35.976150" lon="-112.125190">
        <ele>2014.129</ele>
        <time>2018-12-28T13:52:56Z</time>
      </trkpt>
      <trkpt lat="35.976220" lon="-112.125180">
        <ele>2014.400</ele>
        <time>2018-12-28T13:53:16Z</time>
      </trkpt>
      <trkpt lat="35.976280" lon="-112.125170">
        <ele>2014.720</ele>
        <time>2018-12-28T13:53:36Z</time>
      </trkpt>
      <trkpt lat="35.976310" lon="-112.125160">
        <ele>2014.808</ele>
        <time>2018-12-28T13:53:56Z</time>
      </trkpt>
      <trkpt lat="35.976330" lon="-112.125150">
        <ele>2014.975</ele>
        <time>2018-12-28T13:54:16Z</time>
      </trkpt>
      <trkpt lat="35.976340" lon="-112.125150">
        <ele>2015.063</ele>
        <time>2018-12-28T13:54:36Z</time>
      </trkpt>
      <trkpt lat="35.976360" lon="-112.125140">
        <ele>2015.078</ele>
        <time>2018-12-28T13:54:56Z</time>
      </trkpt>
      <trkpt lat="35.976370" lon="-112.125130">
        <ele>2015.139</ele>
        <time>2018-12-28T13:55:16Z</time>
      </trkpt>
      <trkpt lat="35.976400" lon="-112.125110">
        <ele>2015.274</ele>
        <time>2018-12-28T13:55:36Z</time>
      </trkpt>
      <trkpt lat="35.976430" lon="-112.125080">
        <ele>2015.384</ele>
        <time>2018-12-28T13:55:56Z</time>
      </trkpt>
      <trkpt lat="35.976510" lon="-112.125000">
        <ele>2015.616</ele>
        <time>2018-12-28T13:56:16Z</time>
      </trkpt>
      <trkpt lat="35.976508" lon="-112.124995">
        <ele>2015.570</ele>
        <time>2018-12-28T13:56:36Z</time>
      </trkpt>
      <trkpt lat="35.976510" lon="-112.124970">
        <ele>2015.548</ele>
        <time>2018-12-28T13:56:56Z</time>
      </trkpt>
      <trkpt lat="35.976510" lon="-112.124960">
        <ele>2015.561</ele>
        <time>2018-12-28T13:57:16Z</time>
      </trkpt>
      <trkpt lat="35.976520" lon="-112.124940">
        <ele>2015.517</ele>
        <time>2018-12-28T13:57:36Z</time>
      </trkpt>
      <trkpt lat="35.976520" lon="-112.124920">
        <ele>2015.508</ele>
        <time>2018-12-28T13:57:56Z</time>
      </trkpt>
      <trkpt lat="35.976530" lon="-112.124900">
        <ele>2015.547</ele>
        <time>2018-12-28T13:58:16Z</time>
      </trkpt>
      <trkpt lat="35.976530" lon="-112.124890">
        <ele>2015.575</ele>
        <time>2018-12-28T13:58:36Z</time>
      </trkpt>
      <trkpt lat="35.976540" lon="-112.124870">
        <ele>2015.560</ele>
        <time>2018-12-28T13:58:56Z</time>
      </trkpt>
      <trkpt lat="35.976550" lon="-112.124860">
        <ele>2015.561</ele>
        <time>2018-12-28T13:59:16Z</time>
      </trkpt>
      <trkpt lat="35.976560" lon="-112.124840">
        <ele>2015.676</ele>
        <time>2018-12-28T13:59:36Z</time>
      </trkpt>
      <trkpt lat="35.976580" lon="-112.124830">
        <ele>2015.686</ele>
        <time>2018-12-28T13:59:56Z</time>
      </trkpt>
      <trkpt lat="35.976590" lon="-112.124810">
        <ele>2015.618</ele>
        <time>2018-12-28T14:00:16Z</time>
      </trkpt>
      <trkpt lat="35.976610" lon="-112.124800">
        <ele>2015.752</ele>
        <time>2018-12-28T14:00:36Z</time>
      </trkpt>
      <trkpt lat="35.976620" lon="-112.124790">
        <ele>2015.792</ele>
        <time>2018-12-28T14:00:56Z</time>
      </trkpt>
      <trkpt lat="35.976640" lon="-112.124780">
        <ele>2015.873</ele>
        <time>2018-12-28T14:01:16Z</time>
      </trkpt>
      <trkpt lat="35.976650" lon="-112.124770">
        <ele>2015.820</ele>
        <time>2018-12-28T14:01:36Z</time>
      </trkpt>
      <trkpt lat="35.976670" lon="-112.124770">
        <ele>2015.908</ele>
        <time>2018-12-28T14:01:56Z</time>
      </trkpt>
      <trkpt lat="35.976700" lon="-112.124760">
        <ele>2015.942</ele>
        <time>2018-12-28T14:02:16Z</time>
      </trkpt>
      <trkpt lat="35.976710" lon="-112.124760">
        <ele>2016.060</ele>
        <time>2018-12-28T14:02:36Z</time>
      </trkpt>
      <trkpt lat="35.976720" lon="-112.124760">
        <ele>2016.045</ele>
        <time>2018-12-28T14:02:56Z</time>
      </trkpt>
      <trkpt lat="35.976740" lon="-112.124760">
        <ele>2016.136</ele>
        <time>2018-12-28T14:03:16Z</time>
      </trkpt>
      <trkpt lat="35.976750" lon="-112.124760">
        <ele>2016.141</ele>
        <time>2018-12-28T14:03:36Z</time>
      </trkpt>
      <trkpt lat="35.976780" lon="-112.124770">
        <ele>2016.231</ele>
        <time>2018-12-28T14:03:56Z</time>
      </trkpt>
      <trkpt lat="35.976920" lon="-112.124720">
        <ele>2016.673</ele>
        <time>2018-12-28T14:04:16Z</time>
      </trkpt>
      <trkpt lat="35.977010" lon="-112.124710">
        <ele>2016.957</ele>
        <time>2018-12-28T14:04:36Z</time>
      </trkpt>
      <trkpt lat="35.977120" lon="-112.124680">
        <ele>2017.423</ele>
        <time>2018-12-28T14:04:56Z</time>
      </trkpt>
      <trkpt lat="35.977230" lon="-112.124650">
        <ele>2018.183</ele>
        <time>2018-12-28T14:05:16Z</time>
      </trkpt>
      <trkpt lat="35.977420" lon="-112.124590">
        <ele>2019.311</ele>
        <time>2018-12-28T14:05:36Z</time>
      </trkpt>
      <trkpt lat="35.977640" lon="-112.124510">
        <ele>2019.508</ele>
        <time>2018-12-28T14:05:56Z</time>
      </trkpt>
      <trkpt lat="35.977850" lon="-112.124440">
        <ele>2020.595</ele>
        <time>2018-12-28T14:06:16Z</time>
      </trkpt>
      <trkpt lat="35.978070" lon="-112.124370">
        <ele>2021.663</ele>
        <time>2018-12-28T14:06:36Z</time>
      </trkpt>
      <trkpt lat="35.978380" lon="-112.124270">
        <ele>2023.038</ele>
        <time>2018-12-28T14:06:56Z</time>
      </trkpt>
      <trkpt lat="35.978610" lon="-112.124200">
        <ele>2024.059</ele>
        <time>2018-12-28T14:07:16Z</time>
      </trkpt>
      <trkpt lat="35.978690" lon="-112.124180">
        <ele>2024.474</ele>
        <time>2018-12-28T14:07:36Z</time>
      </trkpt>
      <trkpt lat="35.978870" lon="-112.124120">
        <ele>2025.234</ele>
        <time>2018-12-28T14:07:56Z</time>
      </trkpt>
      <trkpt lat="35.979130" lon="-112.124050">
        <ele>2026.036</ele>
        <time>2018-12-28T14:08:16Z</time>
      </trkpt>
      <trkpt lat="35.979440" lon="-112.123980">
        <ele>2027.450</ele>
        <time>2018-12-28T14:08:36Z</time>
      </trkpt>
      <trkpt lat="35.979490" lon="-112.123970">
        <ele>2027.698</ele>
        <time>2018-12-28T14:08:56Z</time>
      </trkpt>
      <trkpt lat="35.979860" lon="-112.123890">
        <ele>2028.615</ele>
        <time>2018-12-28T14:09:16Z</time>
      </trkpt>
      <trkpt lat="35.980170" lon="-112.123840">
        <ele>2029.526</ele>
        <time>2018-12-28T14:09:36Z</time>
      </trkpt>
      <trkpt lat="35.980260" lon="-112.123820">
        <ele>2029.908</ele>
        <time>2018-12-28T14:09:56Z</time>
      </trkpt>
      <trkpt lat="35.980860" lon="-112.123670">
        <ele>2031.892</ele>
        <time>2018-12-28T14:10:16Z</time>
      </trkpt>
      <trkpt lat="35.981020" lon="-112.123640">
        <ele>2032.310</ele>
        <time>2018-12-28T14:10:36Z</time>
      </trkpt>
      <trkpt lat="35.981150" lon="-112.123610">
        <ele>2032.985</ele>
        <time>2018-12-28T14:10:56Z</time>
      </trkpt>
      <trkpt lat="35.981340" lon="-112.123580">
        <ele>2033.576</ele>
        <time>2018-12-28T14:11:16Z</time>
      </trkpt>
      <trkpt lat="35.981610" lon="-112.123550">
        <ele>2033.681</ele>
        <time>2018-12-28T14:11:36Z</time>
      </trkpt>
      <trkpt lat="35.981800" lon="-112.123520">
        <ele>2033.611</ele>
        <time>2018-12-28T14:11:56Z</time>
      </trkpt>
      <trkpt lat="35.981850" lon="-112.123520">
        <ele>2033.683</ele>
        <time>2018-12-28T14:12:16Z</time>
      </trkpt>
      <trkpt lat="35.981880" lon="-112.123520">
        <ele>2033.627</ele>
        <time>2018-12-28T14:12:36Z</time>
      </trkpt>
      <trkpt lat="35.981980" lon="-112.123520">
        <ele>2033.533</ele>
        <time>2018-12-28T14:12:56Z</time>
      </trkpt>
      <trkpt lat="35.982210" lon="-112.123480">
        <ele>2033.523</ele>
        <time>2018-12-28T14:13:16Z</time>
      </trkpt>
      <trkpt lat="35.982860" lon="-112.123370">
        <ele>2033.215</ele>
        <time>2018-12-28T14:13:36Z</time>
      </trkpt>
      <trkpt lat="35.983970" lon="-112.123270">
        <ele>2028.908</ele>
        <time>2018-12-28T14:13:56Z</time>
      </trkpt>
      <trkpt lat="35.984210" lon="-112.123250">
        <ele>2028.346</ele>
        <time>2018-12-28T14:14:16Z</time>
      </trkpt>
      <trkpt lat="35.984440" lon="-112.123240">
        <ele>2027.994</ele>
        <time>2018-12-28T14:14:36Z</time>
      </trkpt>
      <trkpt lat="35.985020" lon="-112.123210">
        <ele>2027.949</ele>
        <time>2018-12-28T14:14:56Z</time>
      </trkpt>
      <trkpt lat="35.985580" lon="-112.123200">
        <ele>2030.850</ele>
        <time>2018-12-28T14:15:16Z</time>
      </trkpt>
      <trkpt lat="35.985720" lon="-112.123200">
        <ele>2031.225</ele>
        <time>2018-12-28T14:15:36Z</time>
      </trkpt>
      <trkpt lat="35.985800" lon="-112.123180">
        <ele>2031.215</ele>
        <time>2018-12-28T14:15:56Z</time>
      </trkpt>
      <trkpt lat="35.985830" lon="-112.123170">
        <ele>2031.237</ele>
        <time>2018-12-28T14:16:16Z</time>
      </trkpt>
      <trkpt lat="35.985870" lon="-112.123170">
        <ele>2031.231</ele>
        <time>2018-12-28T14:16:36Z</time>
      </trkpt>
      <trkpt lat="35.985910" lon="-112.123170">
        <ele>2031.272</ele>
        <time>2018-12-28T14:16:56Z</time>
      </trkpt>
      <trkpt lat="35.986030" lon="-112.123170">
        <ele>2031.313</ele>
        <time>2018-12-28T14:17:16Z</time>
      </trkpt>
      <trkpt lat="35.986490" lon="-112.123180">
        <ele>2032.614</ele>
        <time>2018-12-28T14:17:36Z</time>
      </trkpt>
      <trkpt lat="35.986820" lon="-112.123180">
        <ele>2033.408</ele>
        <time>2018-12-28T14:17:56Z</time>
      </trkpt>
      <trkpt lat="35.987240" lon="-112.123200">
        <ele>2034.850</ele>
        <time>2018-12-28T14:18:16Z</time>
      </trkpt>
      <trkpt lat="35.987870" lon="-112.123260">
        <ele>2036.678</ele>
        <time>2018-12-28T14:18:36Z</time>
      </trkpt>
      <trkpt lat="35.988490" lon="-112.123300">
        <ele>2037.653</ele>
        <time>2018-12-28T14:18:56Z</time>
      </trkpt>
      <trkpt lat="35.988790" lon="-112.123310">
        <ele>2038.014</ele>
        <time>2018-12-28T14:19:16Z</time>
      </trkpt>
      <trkpt lat="35.989120" lon="-112.123320">
        <ele>2038.779</ele>
        <time>2018-12-28T14:19:36Z</time>
      </trkpt>
      <trkpt lat="35.989460" lon="-112.123320">
        <ele>2040.019</ele>
        <time>2018-12-28T14:19:56Z</time>
      </trkpt>
      <trkpt lat="35.989600" lon="-112.123320">
        <ele>2040.431</ele>
        <time>2018-12-28T14:20:16Z</time>
      </trkpt>
      <trkpt lat="35.990250" lon="-112.123310">
        <ele>2042.635</ele>
        <time>2018-12-28T14:20:36Z</time>
      </trkpt>
      <trkpt lat="35.990890" lon="-112.123290">
        <ele>2044.197</ele>
        <time>2018-12-28T14:20:56Z</time>
      </trkpt>
      <trkpt lat="35.991770" lon="-112.123220">
        <ele>2046.223</ele>
        <time>2018-12-28T14:21:16Z</time>
      </trkpt>
      <trkpt lat="35.991810" lon="-112.123220">
        <ele>2046.225</ele>
        <time>2018-12-28T14:21:36Z</time>
      </trkpt>
      <trkpt lat="35.991840" lon="-112.123210">
        <ele>2046.408</ele>
        <time>2018-12-28T14:21:56Z</time>
      </trkpt>
      <trkpt lat="35.991870" lon="-112.123210">
        <ele>2046.672</ele>
        <time>2018-12-28T14:22:16Z</time>
      </trkpt>
      <trkpt lat="35.991940" lon="-112.123220">
        <ele>2046.940</ele>
        <time>2018-12-28T14:22:36Z</time>
      </trkpt>
      <trkpt lat="35.992330" lon="-112.123180">
        <ele>2049.585</ele>
        <time>2018-12-28T14:22:56Z</time>
      </trkpt>
      <trkpt lat="35.992630" lon="-112.123140">
        <ele>2052.316</ele>
        <time>2018-12-28T14:23:16Z</time>
      </trkpt>
      <trkpt lat="35.992920" lon="-112.123100">
        <ele>2055.061</ele>
        <time>2018-12-28T14:23:36Z</time>
      </trkpt>
      <trkpt lat="35.993250" lon="-112.123050">
        <ele>2056.131</ele>
        <time>2018-12-28T14:23:56Z</time>
      </trkpt>
      <trkpt lat="35.993560" lon="-112.123000">
        <ele>2058.013</ele>
        <time>2018-12-28T14:24:16Z</time>
      </trkpt>
      <trkpt lat="35.993840" lon="-112.122950">
        <ele>2059.017</ele>
        <time>2018-12-28T14:24:36Z</time>
      </trkpt>
      <trkpt lat="35.994070" lon="-112.122900">
        <ele>2060.442</ele>
        <time>2018-12-28T14:24:56Z</time>
      </trkpt>
      <trkpt lat="35.994240" lon="-112.122860">
        <ele>2061.322</ele>
        <time>2018-12-28T14:25:16Z</time>
      </trkpt>
      <trkpt lat="35.994440" lon="-112.122820">
        <ele>2062.514</ele>
        <time>2018-12-28T14:25:36Z</time>
      </trkpt>
      <trkpt lat="35.995430" lon="-112.122580">
        <ele>2066.508</ele>
        <time>2018-12-28T14:25:56Z</time>
      </trkpt>
      <trkpt lat="35.995790" lon="-112.122480">
        <ele>2067.487</ele>
        <time>2018-12-28T14:26:16Z</time>
      </trkpt>
      <trkpt lat="35.996670" lon="-112.122270">
        <ele>2068.885</ele>
        <time>2018-12-28T14:26:36Z</time>
      </trkpt>
      <trkpt lat="35.996850" lon="-112.122220">
        <ele>2068.910</ele>
        <time>2018-12-28T14:26:56Z</time>
      </trkpt>
      <trkpt lat="35.997700" lon="-112.121990">
        <ele>2068.131</ele>
        <time>2018-12-28T14:27:16Z</time>
      </trkpt>
      <trkpt lat="35.998060" lon="-112.121910">
        <ele>2067.636</ele>
        <time>2018-12-28T14:27:36Z</time>
      </trkpt>
      <trkpt lat="35.998550" lon="-112.121810">
        <ele>2067.166</ele>
        <time>2018-12-28T14:27:56Z</time>
      </trkpt>
      <trkpt lat="35.998630" lon="-112.121760">
        <ele>2067.178</ele>
        <time>2018-12-28T14:28:16Z</time>
      </trkpt>
      <trkpt lat="35.998740" lon="-112.121730">
        <ele>2067.092</ele>
        <time>2018-12-28T14:28:36Z</time>
      </trkpt>
      <trkpt lat="35.998930" lon="-112.121680">
        <ele>2066.439</ele>
        <time>2018-12-28T14:28:56Z</time>
      </trkpt>
      <trkpt lat="35.999110" lon="-112.121630">
        <ele>2066.001</ele>
        <time>2018-12-28T14:29:16Z</time>
      </trkpt>
      <trkpt lat="35.999180" lon="-112.121610">
        <ele>2066.021</ele>
        <time>2018-12-28T14:29:36Z</time>
      </trkpt>
      <trkpt lat="35.999340" lon="-112.121580">
        <ele>2065.808</ele>
        <time>2018-12-28T14:29:56Z</time>
      </trkpt>
      <trkpt lat="35.999580" lon="-112.121530">
        <ele>2065.596</ele>
        <time>2018-12-28T14:30:16Z</time>
      </trkpt>
      <trkpt lat="35.999830" lon="-112.121490">
        <ele>2064.884</ele>
        <time>2018-12-28T14:30:36Z</time>
      </trkpt>
      <trkpt lat="36.000060" lon="-112.121460">
        <ele>2064.239</ele>
        <time>2018-12-28T14:30:56Z</time>
      </trkpt>
      <trkpt lat="36.000420" lon="-112.121430">
        <ele>2063.350</ele>
        <time>2018-12-28T14:31:16Z</time>
      </trkpt>
      <trkpt lat="36.000900" lon="-112.121400">
        <ele>2063.555</ele>
        <time>2018-12-28T14:31:36Z</time>
      </trkpt>
      <trkpt lat="36.001180" lon="-112.121400">
        <ele>2063.745</ele>
        <time>2018-12-28T14:31:56Z</time>
      </trkpt>
      <trkpt lat="36.001280" lon="-112.121390">
        <ele>2063.837</ele>
        <time>2018-12-28T14:32:16Z</time>
      </trkpt>
      <trkpt lat="36.001480" lon="-112.121370">
        <ele>2063.971</ele>
        <time>2018-12-28T14:32:36Z</time>
      </trkpt>
      <trkpt lat="36.001560" lon="-112.121360">
        <ele>2064.035</ele>
        <time>2018-12-28T14:32:56Z</time>
      </trkpt>
      <trkpt lat="36.001680" lon="-112.121380">
        <ele>2063.886</ele>
        <time>2018-12-28T14:33:16Z</time>
      </trkpt>
      <trkpt lat="36.001930" lon="-112.121370">
        <ele>2063.414</ele>
        <time>2018-12-28T14:33:36Z</time>
      </trkpt>
      <trkpt lat="36.002160" lon="-112.121360">
        <ele>2062.708</ele>
        <time>2018-12-28T14:33:56Z</time>
      </trkpt>
      <trkpt lat="36.002550" lon="-112.121350">
        <ele>2062.016</ele>
        <time>2018-12-28T14:34:16Z</time>
      </trkpt>
      <trkpt lat="36.002980" lon="-112.121340">
        <ele>2062.244</ele>
        <time>2018-12-28T14:34:36Z</time>
      </trkpt>
      <trkpt lat="36.003470" lon="-112.121320">
        <ele>2064.349</ele>
        <time>2018-12-28T14:34:56Z</time>
      </trkpt>
      <trkpt lat="36.003770" lon="-112.121310">
        <ele>2065.860</ele>
        <time>2018-12-28T14:35:16Z</time>
      </trkpt>
      <trkpt lat="36.004000" lon="-112.121300">
        <ele>2067.265</ele>
        <time>2018-12-28T14:35:36Z</time>
      </trkpt>
      <trkpt lat="36.004310" lon="-112.121270">
        <ele>2069.265</ele>
        <time>2018-12-28T14:35:56Z</time>
      </trkpt>
      <trkpt lat="36.004590" lon="-112.121250">
        <ele>2070.937</ele>
        <time>2018-12-28T14:36:16Z</time>
      </trkpt>
      <trkpt lat="36.004880" lon="-112.121220">
        <ele>2072.161</ele>
        <time>2018-12-28T14:36:36Z</time>
      </trkpt>
      <trkpt lat="36.005210" lon="-112.121180">
        <ele>2073.084</ele>
        <time>2018-12-28T14:36:56Z</time>
      </trkpt>
      <trkpt lat="36.005380" lon="-112.121160">
        <ele>2073.107</ele>
        <time>2018-12-28T14:37:16Z</time>
      </trkpt>
      <trkpt lat="36.005690" lon="-112.121120">
        <ele>2073.417</ele>
        <time>2018-12-28T14:37:36Z</time>
      </trkpt>
      <trkpt lat="36.005890" lon="-112.121090">
        <ele>2073.408</ele>
        <time>2018-12-28T14:37:56Z</time>
      </trkpt>
      <trkpt lat="36.006180" lon="-112.121040">
        <ele>2073.561</ele>
        <time>2018-12-28T14:38:16Z</time>
      </trkpt>
      <trkpt lat="36.006430" lon="-112.121000">
        <ele>2073.059</ele>
        <time>2018-12-28T14:38:36Z</time>
      </trkpt>
      <trkpt lat="36.006800" lon="-112.120930">
        <ele>2071.344</ele>
        <time>2018-12-28T14:38:56Z</time>
      </trkpt>
      <trkpt lat="36.007140" lon="-112.120870">
        <ele>2069.475</ele>
        <time>2018-12-28T14:39:16Z</time>
      </trkpt>
      <trkpt lat="36.007520" lon="-112.120790">
        <ele>2066.580</ele>
        <time>2018-12-28T14:39:36Z</time>
      </trkpt>
      <trkpt lat="36.007730" lon="-112.120750">
        <ele>2064.960</ele>
        <time>2018-12-28T14:39:56Z</time>
      </trkpt>
      <trkpt lat="36.007940" lon="-112.120710">
        <ele>2063.332</ele>
        <time>2018-12-28T14:40:16Z</time>
      </trkpt>
      <trkpt lat="36.008240" lon="-112.120660">
        <ele>2061.916</ele>
        <time>2018-12-28T14:40:36Z</time>
      </trkpt>
      <trkpt lat="36.008410" lon="-112.120630">
        <ele>2061.617</ele>
        <time>2018-12-28T14:40:56Z</time>
      </trkpt>
      <trkpt lat="36.008610" lon="-112.120590">
        <ele>2061.987</ele>
        <time>2018-12-28T14:41:16Z</time>
      </trkpt>
      <trkpt lat="36.008910" lon="-112.120540">
        <ele>2062.915</ele>
        <time>2018-12-28T14:41:36Z</time>
      </trkpt>
      <trkpt lat="36.009230" lon="-112.120490">
        <ele>2064.408</ele>
        <time>2018-12-28T14:41:56Z</time>
      </trkpt>
      <trkpt lat="36.009490" lon="-112.120450">
        <ele>2066.084</ele>
        <time>2018-12-28T14:42:16Z</time>
      </trkpt>
      <trkpt lat="36.009790" lon="-112.120420">
        <ele>2068.112</ele>
        <time>2018-12-28T14:42:36Z</time>
      </trkpt>
      <trkpt lat="36.010000" lon="-112.120390">
        <ele>2069.487</ele>
        <time>2018-12-28T14:42:56Z</time>
      </trkpt>
      <trkpt lat="36.010200" lon="-112.120370">
        <ele>2070.598</ele>
        <time>2018-12-28T14:43:16Z</time>
      </trkpt>
      <trkpt lat="36.010440" lon="-112.120350">
        <ele>2071.733</ele>
        <time>2018-12-28T14:43:36Z</time>
      </trkpt>
      <trkpt lat="36.010620" lon="-112.120330">
        <ele>2072.463</ele>
        <time>2018-12-28T14:43:56Z</time>
      </trkpt>
      <trkpt lat="36.010760" lon="-112.120320">
        <ele>2073.035</ele>
        <time>2018-12-28T14:44:16Z</time>
      </trkpt>
      <trkpt lat="36.011080" lon="-112.120300">
        <ele>2074.369</ele>
        <time>2018-12-28T14:44:36Z</time>
      </trkpt>
      <trkpt lat="36.011440" lon="-112.120280">
        <ele>2075.756</ele>
        <time>2018-12-28T14:44:56Z</time>
      </trkpt>
      <trkpt lat="36.011730" lon="-112.120270">
        <ele>2077.159</ele>
        <time>2018-12-28T14:45:16Z</time>
      </trkpt>
      <trkpt lat="36.012010" lon="-112.120260">
        <ele>2078.514</ele>
        <time>2018-12-28T14:45:36Z</time>
      </trkpt>
      <trkpt lat="36.012310" lon="-112.120260">
        <ele>2080.108</ele>
        <time>2018-12-28T14:45:56Z</time>
      </trkpt>
      <trkpt lat="36.012600" lon="-112.120260">
        <ele>2081.988</ele>
        <time>2018-12-28T14:46:16Z</time>
      </trkpt>
      <trkpt lat="36.012830" lon="-112.120260">
        <ele>2083.296</ele>
        <time>2018-12-28T14:46:36Z</time>
      </trkpt>
      <trkpt lat="36.013120" lon="-112.120270">
        <ele>2084.881</ele>
        <time>2018-12-28T14:46:56Z</time>
      </trkpt>
      <trkpt lat="36.013270" lon="-112.120280">
        <ele>2085.462</ele>
        <time>2018-12-28T14:47:16Z</time>
      </trkpt>
      <trkpt lat="36.013480" lon="-112.120290">
        <ele>2086.017</ele>
        <time>2018-12-28T14:47:36Z</time>
      </trkpt>
      <trkpt lat="36.013800" lon="-112.120310">
        <ele>2086.547</ele>
        <time>2018-12-28T14:47:56Z</time>
      </trkpt>
      <trkpt lat="36.014180" lon="-112.120340">
        <ele>2086.739</ele>
        <time>2018-12-28T14:48:16Z</time>
      </trkpt>
      <trkpt lat="36.014320" lon="-112.120350">
        <ele>2086.713</ele>
        <time>2018-12-28T14:48:36Z</time>
      </trkpt>
      <trkpt lat="36.014450" lon="-112.120370">
        <ele>2086.813</ele>
        <time>2018-12-28T14:48:56Z</time>
      </trkpt>
      <trkpt lat="36.014810" lon="-112.120420">
        <ele>2087.043</ele>
        <time>2018-12-28T14:49:16Z</time>
      </trkpt>
      <trkpt lat="36.015070" lon="-112.120470">
        <ele>2086.707</ele>
        <time>2018-12-28T14:49:36Z</time>
      </trkpt>
      <trkpt lat="36.015290" lon="-112.120510">
        <ele>2086.608</ele>
        <time>2018-12-28T14:49:56Z</time>
      </trkpt>
      <trkpt lat="36.015490" lon="-112.120550">
        <ele>2086.794</ele>
        <time>2018-12-28T14:50:16Z</time>
      </trkpt>
      <trkpt lat="36.015620" lon="-112.120580">
        <ele>2086.912</ele>
        <time>2018-12-28T14:50:36Z</time>
      </trkpt>
      <trkpt lat="36.015700" lon="-112.120600">
        <ele>2086.947</ele>
        <time>2018-12-28T14:50:56Z</time>
      </trkpt>
      <trkpt lat="36.015840" lon="-112.120630">
        <ele>2086.928</ele>
        <time>2018-12-28T14:51:16Z</time>
      </trkpt>
      <trkpt lat="36.015960" lon="-112.120660">
        <ele>2086.813</ele>
        <time>2018-12-28T14:51:36Z</time>
      </trkpt>
      <trkpt lat="36.016150" lon="-112.120720">
        <ele>2087.083</ele>
        <time>2018-12-28T14:51:56Z</time>
      </trkpt>
      <trkpt lat="36.016450" lon="-112.120800">
        <ele>2087.465</ele>
        <time>2018-12-28T14:52:16Z</time>
      </trkpt>
      <trkpt lat="36.016680" lon="-112.120880">
        <ele>2087.179</ele>
        <time>2018-12-28T14:52:36Z</time>
      </trkpt>
      <trkpt lat="36.016890" lon="-112.120950">
        <ele>2086.824</ele>
        <time>2018-12-28T14:52:56Z</time>
      </trkpt>
      <trkpt lat="36.017110" lon="-112.121030">
        <ele>2086.504</ele>
        <time>2018-12-28T14:53:16Z</time>
      </trkpt>
      <trkpt lat="36.017310" lon="-112.121110">
        <ele>2085.914</ele>
        <time>2018-12-28T14:53:36Z</time>
      </trkpt>
      <trkpt lat="36.017550" lon="-112.121210">
        <ele>2085.608</ele>
        <time>2018-12-28T14:53:56Z</time>
      </trkpt>
      <trkpt lat="36.017750" lon="-112.121290">
        <ele>2085.415</ele>
        <time>2018-12-28T14:54:16Z</time>
      </trkpt>
      <trkpt lat="36.018170" lon="-112.121480">
        <ele>2084.373</ele>
        <time>2018-12-28T14:54:36Z</time>
      </trkpt>
      <trkpt lat="36.018710" lon="-112.121720">
        <ele>2083.738</ele>
        <time>2018-12-28T14:54:56Z</time>
      </trkpt>
      <trkpt lat="36.019000" lon="-112.121840">
        <ele>2084.069</ele>
        <time>2018-12-28T14:55:16Z</time>
      </trkpt>
      <trkpt lat="36.019450" lon="-112.122010">
        <ele>2083.394</ele>
        <time>2018-12-28T14:55:36Z</time>
      </trkpt>
      <trkpt lat="36.019660" lon="-112.122090">
        <ele>2082.674</ele>
        <time>2018-12-28T14:55:56Z</time>
      </trkpt>
      <trkpt lat="36.019790" lon="-112.122130">
        <ele>2082.446</ele>
        <time>2018-12-28T14:56:16Z</time>
      </trkpt>
      <trkpt lat="36.020040" lon="-112.122210">
        <ele>2082.390</ele>
        <time>2018-12-28T14:56:36Z</time>
      </trkpt>
      <trkpt lat="36.020300" lon="-112.122290">
        <ele>2082.694</ele>
        <time>2018-12-28T14:56:56Z</time>
      </trkpt>
      <trkpt lat="36.020390" lon="-112.122320">
        <ele>2082.857</ele>
        <time>2018-12-28T14:57:16Z</time>
      </trkpt>
      <trkpt lat="36.020520" lon="-112.122350">
        <ele>2083.122</ele>
        <time>2018-12-28T14:57:36Z</time>
      </trkpt>
      <trkpt lat="36.020610" lon="-112.122370">
        <ele>2083.408</ele>
        <time>2018-12-28T14:57:56Z</time>
      </trkpt>
      <trkpt lat="36.020780" lon="-112.122420">
        <ele>2083.662</ele>
        <time>2018-12-28T14:58:16Z</time>
      </trkpt>
      <trkpt lat="36.021000" lon="-112.122460">
        <ele>2083.930</ele>
        <time>2018-12-28T14:58:36Z</time>
      </trkpt>
      <trkpt lat="36.021220" lon="-112.122510">
        <ele>2084.365</ele>
        <time>2018-12-28T14:58:56Z</time>
      </trkpt>
      <trkpt lat="36.021440" lon="-112.122550">
        <ele>2084.246</ele>
        <time>2018-12-28T14:59:16Z</time>
      </trkpt>
      <trkpt lat="36.021660" lon="-112.122590">
        <ele>2084.251</ele>
        <time>2018-12-28T14:59:36Z</time>
      </trkpt>
      <trkpt lat="36.021870" lon="-112.122620">
        <ele>2084.471</ele>
        <time>2018-12-28T14:59:56Z</time>
      </trkpt>
      <trkpt lat="36.022200" lon="-112.122660">
        <ele>2084.923</ele>
        <time>2018-12-28T15:00:16Z</time>
      </trkpt>
      <trkpt lat="36.022530" lon="-112.122690">
        <ele>2085.657</ele>
        <time>2018-12-28T15:00:36Z</time>
      </trkpt>
      <trkpt lat="36.022750" lon="-112.122710">
        <ele>2086.156</ele>
        <time>2018-12-28T15:00:56Z</time>
      </trkpt>
      <trkpt lat="36.022960" lon="-112.122730">
        <ele>2086.659</ele>
        <time>2018-12-28T15:01:16Z</time>
      </trkpt>
      <trkpt lat="36.023290" lon="-112.122760">
        <ele>2086.714</ele>
        <time>2018-12-28T15:01:36Z</time>
      </trkpt>
      <trkpt lat="36.023570" lon="-112.122780">
        <ele>2086.708</ele>
        <time>2018-12-28T15:01:56Z</time>
      </trkpt>
      <trkpt lat="36.023850" lon="-112.122800">
        <ele>2086.568</ele>
        <time>2018-12-28T15:02:16Z</time>
      </trkpt>
      <trkpt lat="36.024070" lon="-112.122820">
        <ele>2086.276</ele>
        <time>2018-12-28T15:02:36Z</time>
      </trkpt>
      <trkpt lat="36.024290" lon="-112.122830">
        <ele>2086.611</ele>
        <time>2018-12-28T15:02:56Z</time>
      </trkpt>
      <trkpt lat="36.024530" lon="-112.122850">
        <ele>2087.262</ele>
        <time>2018-12-28T15:03:16Z</time>
      </trkpt>
      <trkpt lat="36.024950" lon="-112.122880">
        <ele>2088.547</ele>
        <time>2018-12-28T15:03:36Z</time>
      </trkpt>
      <trkpt lat="36.025290" lon="-112.122900">
        <ele>2090.847</ele>
        <time>2018-12-28T15:03:56Z</time>
      </trkpt>
      <trkpt lat="36.025630" lon="-112.122910">
        <ele>2093.839</ele>
        <time>2018-12-28T15:04:16Z</time>
      </trkpt>
      <trkpt lat="36.026030" lon="-112.122930">
        <ele>2096.463</ele>
        <time>2018-12-28T15:04:36Z</time>
      </trkpt>
      <trkpt lat="36.026530" lon="-112.122960">
        <ele>2098.261</ele>
        <time>2018-12-28T15:04:56Z</time>
      </trkpt>
      <trkpt lat="36.026930" lon="-112.122980">
        <ele>2098.921</ele>
        <time>2018-12-28T15:05:16Z</time>
      </trkpt>
      <trkpt lat="36.027310" lon="-112.122990">
        <ele>2099.713</ele>
        <time>2018-12-28T15:05:36Z</time>
      </trkpt>
      <trkpt lat="36.027520" lon="-112.123000">
        <ele>2100.108</ele>
        <time>2018-12-28T15:05:56Z</time>
      </trkpt>
      <trkpt lat="36.027770" lon="-112.123010">
        <ele>2100.479</ele>
        <time>2018-12-28T15:06:16Z</time>
      </trkpt>
      <trkpt lat="36.028030" lon="-112.123020">
        <ele>2100.897</ele>
        <time>2018-12-28T15:06:36Z</time>
      </trkpt>
      <trkpt lat="36.028270" lon="-112.123030">
        <ele>2101.272</ele>
        <time>2018-12-28T15:06:56Z</time>
      </trkpt>
      <trkpt lat="36.028520" lon="-112.123030">
        <ele>2101.463</ele>
        <time>2018-12-28T15:07:16Z</time>
      </trkpt>
      <trkpt lat="36.028900" lon="-112.123040">
        <ele>2101.258</ele>
        <time>2018-12-28T15:07:36Z</time>
      </trkpt>
      <trkpt lat="36.029220" lon="-112.123040">
        <ele>2101.158</ele>
        <time>2018-12-28T15:07:56Z</time>
      </trkpt>
      <trkpt lat="36.029490" lon="-112.123040">
        <ele>2101.240</ele>
        <time>2018-12-28T15:08:16Z</time>
      </trkpt>
      <trkpt lat="36.029690" lon="-112.123040">
        <ele>2101.334</ele>
        <time>2018-12-28T15:08:36Z</time>
      </trkpt>
      <trkpt lat="36.029820" lon="-112.123040">
        <ele>2101.381</ele>
        <time>2018-12-28T15:08:56Z</time>
      </trkpt>
      <trkpt lat="36.030150" lon="-112.123040">
        <ele>2101.161</ele>
        <time>2018-12-28T15:09:16Z</time>
      </trkpt>
      <trkpt lat="36.030380" lon="-112.123040">
        <ele>2100.617</ele>
        <time>2018-12-28T15:09:36Z</time>
      </trkpt>
      <trkpt lat="36.030600" lon="-112.123040">
        <ele>2100.008</ele>
        <time>2018-12-28T15:09:56Z</time>
      </trkpt>
      <trkpt lat="36.030790" lon="-112.123040">
        <ele>2099.791</ele>
        <time>2018-12-28T15:10:16Z</time>
      </trkpt>
      <trkpt lat="36.030920" lon="-112.123030">
        <ele>2099.899</ele>
        <time>2018-12-28T15:10:36Z</time>
      </trkpt>
      <trkpt lat="36.031120" lon="-112.123030">
        <ele>2100.424</ele>
        <time>2018-12-28T15:10:56Z</time>
      </trkpt>
      <trkpt lat="36.031220" lon="-112.123030">
        <ele>2100.815</ele>
        <time>2018-12-28T15:11:16Z</time>
      </trkpt>
      <trkpt lat="36.031450" lon="-112.123020">
        <ele>2102.130</ele>
        <time>2018-12-28T15:11:36Z</time>
      </trkpt>
      <trkpt lat="36.031670" lon="-112.123010">
        <ele>2103.440</ele>
        <time>2018-12-28T15:11:56Z</time>
      </trkpt>
      <trkpt lat="36.032000" lon="-112.122990">
        <ele>2105.412</ele>
        <time>2018-12-28T15:12:16Z</time>
      </trkpt>
      <trkpt lat="36.032220" lon="-112.122970">
        <ele>2106.516</ele>
        <time>2018-12-28T15:12:36Z</time>
      </trkpt>
      <trkpt lat="36.032520" lon="-112.122950">
        <ele>2107.916</ele>
        <time>2018-12-28T15:12:56Z</time>
      </trkpt>
      <trkpt lat="36.033040" lon="-112.122900">
        <ele>2109.876</ele>
        <time>2018-12-28T15:13:16Z</time>
      </trkpt>
      <trkpt lat="36.033320" lon="-112.122870">
        <ele>2110.113</ele>
        <time>2018-12-28T15:13:36Z</time>
      </trkpt>
      <trkpt lat="36.033560" lon="-112.122850">
        <ele>2110.408</ele>
        <time>2018-12-28T15:13:56Z</time>
      </trkpt>
      <trkpt lat="36.033780" lon="-112.122820">
        <ele>2110.924</ele>
        <time>2018-12-28T15:14:16Z</time>
      </trkpt>
      <trkpt lat="36.034000" lon="-112.122790">
        <ele>2111.152</ele>
        <time>2018-12-28T15:14:36Z</time>
      </trkpt>
      <trkpt lat="36.034290" lon="-112.122750">
        <ele>2111.617</ele>
        <time>2018-12-28T15:14:56Z</time>
      </trkpt>
      <trkpt lat="36.034620" lon="-112.122690">
        <ele>2112.368</ele>
        <time>2018-12-28T15:15:16Z</time>
      </trkpt>
      <trkpt lat="36.034850" lon="-112.122650">
        <ele>2112.793</ele>
        <time>2018-12-28T15:15:36Z</time>
      </trkpt>
      <trkpt lat="36.035060" lon="-112.122620">
        <ele>2112.933</ele>
        <time>2018-12-28T15:15:56Z</time>
      </trkpt>
      <trkpt lat="36.035220" lon="-112.122590">
        <ele>2113.035</ele>
        <time>2018-12-28T15:16:16Z</time>
      </trkpt>
      <trkpt lat="36.035400" lon="-112.122550">
        <ele>2113.259</ele>
        <time>2018-12-28T15:16:36Z</time>
      </trkpt>
      <trkpt lat="36.035630" lon="-112.122510">
        <ele>2113.292</ele>
        <time>2018-12-28T15:16:56Z</time>
      </trkpt>
      <trkpt lat="36.035920" lon="-112.122440">
        <ele>2113.473</ele>
        <time>2018-12-28T15:17:16Z</time>
      </trkpt>
      <trkpt lat="36.036340" lon="-112.122350">
        <ele>2113.620</ele>
        <time>2018-12-28T15:17:36Z</time>
      </trkpt>
      <trkpt lat="36.036570" lon="-112.122300">
        <ele>2113.608</ele>
        <time>2018-12-28T15:17:56Z</time>
      </trkpt>
      <trkpt lat="36.036770" lon="-112.122260">
        <ele>2113.572</ele>
        <time>2018-12-28T15:18:16Z</time>
      </trkpt>
      <trkpt lat="36.036970" lon="-112.122220">
        <ele>2113.190</ele>
        <time>2018-12-28T15:18:36Z</time>
      </trkpt>
      <trkpt lat="36.037260" lon="-112.122150">
        <ele>2112.565</ele>
        <time>2018-12-28T15:18:56Z</time>
      </trkpt>
      <trkpt lat="36.037500" lon="-112.122090">
        <ele>2112.526</ele>
        <time>2018-12-28T15:19:16Z</time>
      </trkpt>
      <trkpt lat="36.037860" lon="-112.121990">
        <ele>2112.951</ele>
        <time>2018-12-28T15:19:36Z</time>
      </trkpt>
      <trkpt lat="36.038090" lon="-112.121910">
        <ele>2113.371</ele>
        <time>2018-12-28T15:19:56Z</time>
      </trkpt>
      <trkpt lat="36.038140" lon="-112.121890">
        <ele>2113.433</ele>
        <time>2018-12-28T15:20:16Z</time>
      </trkpt>
      <trkpt lat="36.038330" lon="-112.121840">
        <ele>2113.537</ele>
        <time>2018-12-28T15:20:36Z</time>
      </trkpt>
      <trkpt lat="36.038530" lon="-112.121780">
        <ele>2113.738</ele>
        <time>2018-12-28T15:20:56Z</time>
      </trkpt>
      <trkpt lat="36.038680" lon="-112.121740">
        <ele>2113.970</ele>
        <time>2018-12-28T15:21:16Z</time>
      </trkpt>
      <trkpt lat="36.038820" lon="-112.121710">
        <ele>2113.917</ele>
        <time>2018-12-28T15:21:36Z</time>
      </trkpt>
      <trkpt lat="36.038970" lon="-112.121680">
        <ele>2113.908</ele>
        <time>2018-12-28T15:21:56Z</time>
      </trkpt>
      <trkpt lat="36.039510" lon="-112.121550">
        <ele>2113.096</ele>
        <time>2018-12-28T15:22:16Z</time>
      </trkpt>
      <trkpt lat="36.039820" lon="-112.121490">
        <ele>2112.284</ele>
        <time>2018-12-28T15:22:36Z</time>
      </trkpt>
      <trkpt lat="36.040100" lon="-112.121450">
        <ele>2112.169</ele>
        <time>2018-12-28T15:22:56Z</time>
      </trkpt>
      <trkpt lat="36.040280" lon="-112.121420">
        <ele>2112.270</ele>
        <time>2018-12-28T15:23:16Z</time>
      </trkpt>
      <trkpt lat="36.040420" lon="-112.121380">
        <ele>2112.365</ele>
        <time>2018-12-28T15:23:36Z</time>
      </trkpt>
      <trkpt lat="36.040610" lon="-112.121340">
        <ele>2112.025</ele>
        <time>2018-12-28T15:23:56Z</time>
      </trkpt>
      <trkpt lat="36.040730" lon="-112.121300">
        <ele>2111.967</ele>
        <time>2018-12-28T15:24:16Z</time>
      </trkpt>
      <trkpt lat="36.040800" lon="-112.121280">
        <ele>2111.911</ele>
        <time>2018-12-28T15:24:36Z</time>
      </trkpt>
      <trkpt lat="36.040950" lon="-112.121280">
        <ele>2111.782</ele>
        <time>2018-12-28T15:24:56Z</time>
      </trkpt>
      <trkpt lat="36.041180" lon="-112.121180">
        <ele>2112.043</ele>
        <time>2018-12-28T15:25:16Z</time>
      </trkpt>
      <trkpt lat="36.041270" lon="-112.121150">
        <ele>2112.017</ele>
        <time>2018-12-28T15:25:36Z</time>
      </trkpt>
      <trkpt lat="36.041360" lon="-112.121110">
        <ele>2112.008</ele>
        <time>2018-12-28T15:25:56Z</time>
      </trkpt>
      <trkpt lat="36.041460" lon="-112.121080">
        <ele>2111.961</ele>
        <time>2018-12-28T15:26:16Z</time>
      </trkpt>
      <trkpt lat="36.041540" lon="-112.121050">
        <ele>2111.889</ele>
        <time>2018-12-28T15:26:36Z</time>
      </trkpt>
      <trkpt lat="36.041650" lon="-112.121000">
        <ele>2111.774</ele>
        <time>2018-12-28T15:26:56Z</time>
      </trkpt>
      <trkpt lat="36.041820" lon="-112.120930">
        <ele>2111.845</ele>
        <time>2018-12-28T15:27:16Z</time>
      </trkpt>
      <trkpt lat="36.041980" lon="-112.120860">
        <ele>2112.370</ele>
        <time>2018-12-28T15:27:36Z</time>
      </trkpt>
      <trkpt lat="36.042130" lon="-112.120790">
        <ele>2113.130</ele>
        <time>2018-12-28T15:27:56Z</time>
      </trkpt>
      <trkpt lat="36.042210" lon="-112.120740">
        <ele>2114.092</ele>
        <time>2018-12-28T15:28:16Z</time>
      </trkpt>
      <trkpt lat="36.042330" lon="-112.120680">
        <ele>2115.176</ele>
        <time>2018-12-28T15:28:36Z</time>
      </trkpt>
      <trkpt lat="36.042450" lon="-112.120620">
        <ele>2116.265</ele>
        <time>2018-12-28T15:28:56Z</time>
      </trkpt>
      <trkpt lat="36.042540" lon="-112.120570">
        <ele>2117.168</ele>
        <time>2018-12-28T15:29:16Z</time>
      </trkpt>
      <trkpt lat="36.042850" lon="-112.120380">
        <ele>2119.314</ele>
        <time>2018-12-28T15:29:36Z</time>
      </trkpt>
      <trkpt lat="36.042930" lon="-112.120330">
        <ele>2119.808</ele>
        <time>2018-12-28T15:29:56Z</time>
      </trkpt>
      <trkpt lat="36.043050" lon="-112.120250">
        <ele>2120.249</ele>
        <time>2018-12-28T15:30:16Z</time>
      </trkpt>
      <trkpt lat="36.043260" lon="-112.120110">
        <ele>2121.067</ele>
        <time>2018-12-28T15:30:36Z</time>
      </trkpt>
      <trkpt lat="36.043380" lon="-112.120030">
        <ele>2121.352</ele>
        <time>2018-12-28T15:30:56Z</time>
      </trkpt>
      <trkpt lat="36.043530" lon="-112.119920">
        <ele>2121.663</ele>
        <time>2018-12-28T15:31:16Z</time>
      </trkpt>
      <trkpt lat="36.043660" lon="-112.119820">
        <ele>2121.968</ele>
        <time>2018-12-28T15:31:36Z</time>
      </trkpt>
      <trkpt lat="36.043810" lon="-112.119700">
        <ele>2122.438</ele>
        <time>2018-12-28T15:31:56Z</time>
      </trkpt>
      <trkpt lat="36.043930" lon="-112.119600">
        <ele>2123.150</ele>
        <time>2018-12-28T15:32:16Z</time>
      </trkpt>
      <trkpt lat="36.044040" lon="-112.119510">
        <ele>2124.094</ele>
        <time>2018-12-28T15:32:36Z</time>
      </trkpt>
      <trkpt lat="36.044130" lon="-112.119430">
        <ele>2124.977</ele>
        <time>2018-12-28T15:32:56Z</time>
      </trkpt>
      <trkpt lat="36.044220" lon="-112.119350">
        <ele>2125.761</ele>
        <time>2018-12-28T15:33:16Z</time>
      </trkpt>
      <trkpt lat="36.044320" lon="-112.119250">
        <ele>2126.827</ele>
        <time>2018-12-28T15:33:36Z</time>
      </trkpt>
      <trkpt lat="36.044450" lon="-112.119130">
        <ele>2128.208</ele>
        <time>2018-12-28T15:33:56Z</time>
      </trkpt>
      <trkpt lat="36.044540" lon="-112.119040">
        <ele>2129.130</ele>
        <time>2018-12-28T15:34:16Z</time>
      </trkpt>
      <trkpt lat="36.044660" lon="-112.118920">
        <ele>2130.398</ele>
        <time>2018-12-28T15:34:36Z</time>
      </trkpt>
      <trkpt lat="36.044770" lon="-112.118800">
        <ele>2131.313</ele>
        <time>2018-12-28T15:34:56Z</time>
      </trkpt>
      <trkpt lat="36.044930" lon="-112.118630">
        <ele>2132.714</ele>
        <time>2018-12-28T15:35:16Z</time>
      </trkpt>
      <trkpt lat="36.045120" lon="-112.118410">
        <ele>2134.329</ele>
        <time>2018-12-28T15:35:36Z</time>
      </trkpt>
      <trkpt lat="36.045230" lon="-112.118280">
        <ele>2134.669</ele>
        <time>2018-12-28T15:35:56Z</time>
      </trkpt>
      <trkpt lat="36.045330" lon="-112.118150">
        <ele>2135.011</ele>
        <time>2018-12-28T15:36:16Z</time>
      </trkpt>
      <trkpt lat="36.045430" lon="-112.118020">
        <ele>2135.455</ele>
        <time>2018-12-28T15:36:36Z</time>
      </trkpt>
      <trkpt lat="36.045490" lon="-112.117950">
        <ele>2135.656</ele>
        <time>2018-12-28T15:36:56Z</time>
      </trkpt>
      <trkpt lat="36.045520" lon="-112.117900">
        <ele>2135.759</ele>
        <time>2018-12-28T15:37:16Z</time>
      </trkpt>
      <trkpt lat="36.045620" lon="-112.117780">
        <ele>2136.114</ele>
        <time>2018-12-28T15:37:36Z</time>
      </trkpt>
      <trkpt lat="36.045770" lon="-112.117570">
        <ele>2136.608</ele>
        <time>2018-12-28T15:37:56Z</time>
      </trkpt>
      <trkpt lat="36.045810" lon="-112.117510">
        <ele>2136.848</ele>
        <time>2018-12-28T15:38:16Z</time>
      </trkpt>
      <trkpt lat="36.045820" lon="-112.117490">
        <ele>2136.976</ele>
        <time>2018-12-28T15:38:36Z</time>
      </trkpt>
      <trkpt lat="36.045890" lon="-112.117390">
        <ele>2137.261</ele>
        <time>2018-12-28T15:38:56Z</time>
      </trkpt>
      <trkpt lat="36.045990" lon="-112.117240">
        <ele>2137.652</ele>
        <time>2018-12-28T15:39:16Z</time>
      </trkpt>
      <trkpt lat="36.046070" lon="-112.117110">
        <ele>2138.087</ele>
        <time>2018-12-28T15:39:36Z</time>
      </trkpt>
      <trkpt lat="36.046140" lon="-112.116990">
        <ele>2138.267</ele>
        <time>2018-12-28T15:39:56Z</time>
      </trkpt>
      <trkpt lat="36.046220" lon="-112.116870">
        <ele>2138.559</ele>
        <time>2018-12-28T15:40:16Z</time>
      </trkpt>
      <trkpt lat="36.046240" lon="-112.116820">
        <ele>2138.693</ele>
        <time>2018-12-28T15:40:36Z</time>
      </trkpt>
      <trkpt lat="36.046270" lon="-112.116780">
        <ele>2138.895</ele>
        <time>2018-12-28T15:40:56Z</time>
      </trkpt>
      <trkpt lat="36.046310" lon="-112.116690">
        <ele>2139.049</ele>
        <time>2018-12-28T15:41:16Z</time>
      </trkpt>
      <trkpt lat="36.046400" lon="-112.116540">
        <ele>2139.523</ele>
        <time>2018-12-28T15:41:36Z</time>
      </trkpt>
      <trkpt lat="36.046550" lon="-112.116250">
        <ele>2139.908</ele>
        <time>2018-12-28T15:41:56Z</time>
      </trkpt>
      <trkpt lat="36.046670" lon="-112.116010">
        <ele>2140.092</ele>
        <time>2018-12-28T15:42:16Z</time>
      </trkpt>
      <trkpt lat="36.046750" lon="-112.115850">
        <ele>2140.120</ele>
        <time>2018-12-28T15:42:36Z</time>
      </trkpt>
      <trkpt lat="36.046800" lon="-112.115740">
        <ele>2140.235</ele>
        <time>2018-12-28T15:42:56Z</time>
      </trkpt>
      <trkpt lat="36.046840" lon="-112.115650">
        <ele>2140.356</ele>
        <time>2018-12-28T15:43:16Z</time>
      </trkpt>
      <trkpt lat="36.046890" lon="-112.115540">
        <ele>2140.521</ele>
        <time>2018-12-28T15:43:36Z</time>
      </trkpt>
      <trkpt lat="36.046920" lon="-112.115460">
        <ele>2140.691</ele>
        <time>2018-12-28T15:43:56Z</time>
      </trkpt>
      <trkpt lat="36.046950" lon="-112.115400">
        <ele>2140.783</ele>
        <time>2018-12-28T15:44:16Z</time>
      </trkpt>
      <trkpt lat="36.046970" lon="-112.115350">
        <ele>2140.977</ele>
        <time>2018-12-28T15:44:36Z</time>
      </trkpt>
      <trkpt lat="36.047000" lon="-112.115280">
        <ele>2141.187</ele>
        <time>2018-12-28T15:44:56Z</time>
      </trkpt>
      <trkpt lat="36.047020" lon="-112.115230">
        <ele>2141.342</ele>
        <time>2018-12-28T15:45:16Z</time>
      </trkpt>
      <trkpt lat="36.047050" lon="-112.115140">
        <ele>2141.626</ele>
        <time>2018-12-28T15:45:36Z</time>
      </trkpt>
      <trkpt lat="36.047070" lon="-112.115080">
        <ele>2141.808</ele>
        <time>2018-12-28T15:45:56Z</time>
      </trkpt>
      <trkpt lat="36.047130" lon="-112.114940">
        <ele>2142.361</ele>
        <time>2018-12-28T15:46:16Z</time>
      </trkpt>
      <trkpt lat="36.047190" lon="-112.114760">
        <ele>2143.029</ele>
        <time>2018-12-28T15:46:36Z</time>
      </trkpt>
      <trkpt lat="36.047250" lon="-112.114600">
        <ele>2143.754</ele>
        <time>2018-12-28T15:46:56Z</time>
      </trkpt>
      <trkpt lat="36.047300" lon="-112.114460">
        <ele>2144.215</ele>
        <time>2018-12-28T15:47:16Z</time>
      </trkpt>
      <trkpt lat="36.047370" lon="-112.114270">
        <ele>2144.810</ele>
        <time>2018-12-28T15:47:36Z</time>
      </trkpt>
      <trkpt lat="36.047420" lon="-112.114140">
        <ele>2145.140</ele>
        <time>2018-12-28T15:47:56Z</time>
      </trkpt>
      <trkpt lat="36.047590" lon="-112.113670">
        <ele>2146.292</ele>
        <time>2018-12-28T15:48:16Z</time>
      </trkpt>
      <trkpt lat="36.047770" lon="-112.113170">
        <ele>2147.696</ele>
        <time>2018-12-28T15:48:36Z</time>
      </trkpt>
      <trkpt lat="36.047910" lon="-112.112810">
        <ele>2148.479</ele>
        <time>2018-12-28T15:48:56Z</time>
      </trkpt>
      <trkpt lat="36.048110" lon="-112.112330">
        <ele>2148.905</ele>
        <time>2018-12-28T15:49:16Z</time>
      </trkpt>
      <trkpt lat="36.048260" lon="-112.111970">
        <ele>2149.225</ele>
        <time>2018-12-28T15:49:36Z</time>
      </trkpt>
      <trkpt lat="36.048400" lon="-112.111640">
        <ele>2149.508</ele>
        <time>2018-12-28T15:49:56Z</time>
      </trkpt>
      <trkpt lat="36.048630" lon="-112.111120">
        <ele>2150.130</ele>
        <time>2018-12-28T15:50:16Z</time>
      </trkpt>
      <trkpt lat="36.048830" lon="-112.110680">
        <ele>2150.928</ele>
        <time>2018-12-28T15:50:36Z</time>
      </trkpt>
      <trkpt lat="36.049060" lon="-112.110190">
        <ele>2152.743</ele>
        <time>2018-12-28T15:50:56Z</time>
      </trkpt>
      <trkpt lat="36.049290" lon="-112.109730">
        <ele>2155.114</ele>
        <time>2018-12-28T15:51:16Z</time>
      </trkpt>
      <trkpt lat="36.049530" lon="-112.109270">
        <ele>2157.289</ele>
        <time>2018-12-28T15:51:36Z</time>
      </trkpt>
      <trkpt lat="36.049710" lon="-112.108920">
        <ele>2158.529</ele>
        <time>2018-12-28T15:51:56Z</time>
      </trkpt>
      <trkpt lat="36.049990" lon="-112.108400">
        <ele>2159.761</ele>
        <time>2018-12-28T15:52:16Z</time>
      </trkpt>
      <trkpt lat="36.050120" lon="-112.108170">
        <ele>2160.255</ele>
        <time>2018-12-28T15:52:36Z</time>
      </trkpt>
      <trkpt lat="36.050210" lon="-112.108010">
        <ele>2160.398</ele>
        <time>2018-12-28T15:52:56Z</time>
      </trkpt>
      <trkpt lat="36.050310" lon="-112.107840">
        <ele>2160.415</ele>
        <time>2018-12-28T15:53:16Z</time>
      </trkpt>
      <trkpt lat="36.050440" lon="-112.107620">
        <ele>2160.426</ele>
        <time>2018-12-28T15:53:36Z</time>
      </trkpt>
      <trkpt lat="36.050580" lon="-112.107390">
        <ele>2160.508</ele>
        <time>2018-12-28T15:53:56Z</time>
      </trkpt>
      <trkpt lat="36.050820" lon="-112.107010">
        <ele>2160.812</ele>
        <time>2018-12-28T15:54:16Z</time>
      </trkpt>
      <trkpt lat="36.051030" lon="-112.106670">
        <ele>2161.540</ele>
        <time>2018-12-28T15:54:36Z</time>
      </trkpt>
      <trkpt lat="36.051100" lon="-112.106560">
        <ele>2161.885</ele>
        <time>2018-12-28T15:54:56Z</time>
      </trkpt>
      <trkpt lat="36.051220" lon="-112.106400">
        <ele>2162.376</ele>
        <time>2018-12-28T15:55:16Z</time>
      </trkpt>
      <trkpt lat="36.051330" lon="-112.106280">
        <ele>2162.811</ele>
        <time>2018-12-28T15:55:36Z</time>
      </trkpt>
      <trkpt lat="36.051380" lon="-112.106220">
        <ele>2163.011</ele>
        <time>2018-12-28T15:55:56Z</time>
      </trkpt>
      <trkpt lat="36.051450" lon="-112.106140">
        <ele>2163.363</ele>
        <time>2018-12-28T15:56:16Z</time>
      </trkpt>
      <trkpt lat="36.051750" lon="-112.105850">
        <ele>2164.567</ele>
        <time>2018-12-28T15:56:36Z</time>
      </trkpt>
      <trkpt lat="36.051940" lon="-112.105690">
        <ele>2165.623</ele>
        <time>2018-12-28T15:56:56Z</time>
      </trkpt>
      <trkpt lat="36.052060" lon="-112.105580">
        <ele>2166.383</ele>
        <time>2018-12-28T15:57:16Z</time>
      </trkpt>
      <trkpt lat="36.052064" lon="-112.105583">
        <ele>2166.311</ele>
        <time>2018-12-28T15:57:36Z</time>
      </trkpt>
      <trkpt lat="36.052260" lon="-112.105440">
        <ele>2167.608</ele>
        <time>2018-12-28T15:57:56Z</time>
      </trkpt>
      <trkpt lat="36.052450" lon="-112.105300">
        <ele>2168.865</ele>
        <time>2018-12-28T15:58:16Z</time>
      </trkpt>
      <trkpt lat="36.053020" lon="-112.104960">
        <ele>2170.663</ele>
        <time>2018-12-28T15:58:36Z</time>
      </trkpt>
      <trkpt lat="36.053210" lon="-112.104880">
        <ele>2170.618</ele>
        <time>2018-12-28T15:58:56Z</time>
      </trkpt>
      <trkpt lat="36.053300" lon="-112.104840">
        <ele>2170.589</ele>
        <time>2018-12-28T15:59:16Z</time>
      </trkpt>
      <trkpt lat="36.053410" lon="-112.104800">
        <ele>2170.454</ele>
        <time>2018-12-28T15:59:36Z</time>
      </trkpt>
      <trkpt lat="36.053530" lon="-112.104760">
        <ele>2170.394</ele>
        <time>2018-12-28T15:59:56Z</time>
      </trkpt>
      <trkpt lat="36.053640" lon="-112.104730">
        <ele>2170.356</ele>
        <time>2018-12-28T16:00:16Z</time>
      </trkpt>
      <trkpt lat="36.053780" lon="-112.104680">
        <ele>2170.540</ele>
        <time>2018-12-28T16:00:36Z</time>
      </trkpt>
      <trkpt lat="36.053950" lon="-112.104630">
        <ele>2170.846</ele>
        <time>2018-12-28T16:00:56Z</time>
      </trkpt>
      <trkpt lat="36.054040" lon="-112.104610">
        <ele>2170.988</ele>
        <time>2018-12-28T16:01:16Z</time>
      </trkpt>
      <trkpt lat="36.054090" lon="-112.104600">
        <ele>2170.916</ele>
        <time>2018-12-28T16:01:36Z</time>
      </trkpt>
      <trkpt lat="36.054120" lon="-112.104600">
        <ele>2171.008</ele>
        <time>2018-12-28T16:01:56Z</time>
      </trkpt>
      <trkpt lat="36.054220" lon="-112.104590">
        <ele>2171.067</ele>
        <time>2018-12-28T16:02:16Z</time>
      </trkpt>
      <trkpt lat="36.054350" lon="-112.104570">
        <ele>2171.115</ele>
        <time>2018-12-28T16:02:36Z</time>
      </trkpt>
      <trkpt lat="36.054490" lon="-112.104550">
        <ele>2171.270</ele>
        <time>2018-12-28T16:02:56Z</time>
      </trkpt>
      <trkpt lat="36.054640" lon="-112.104530">
        <ele>2171.281</ele>
        <time>2018-12-28T16:03:16Z</time>
      </trkpt>
      <trkpt lat="36.054770" lon="-112.104520">
        <ele>2171.276</ele>
        <time>2018-12-28T16:03:36Z</time>
      </trkpt>
      <trkpt lat="36.054910" lon="-112.104510">
        <ele>2171.276</ele>
        <time>2018-12-28T16:03:56Z</time>
      </trkpt>
      <trkpt lat="36.055040" lon="-112.104500">
        <ele>2171.218</ele>
        <time>2018-12-28T16:04:16Z</time>
      </trkpt>
      <trkpt lat="36.055210" lon="-112.104510">
        <ele>2171.252</ele>
        <time>2018-12-28T16:04:36Z</time>
      </trkpt>
      <trkpt lat="36.055350" lon="-112.104520">
        <ele>2171.498</ele>
        <time>2018-12-28T16:04:56Z</time>
      </trkpt>
      <trkpt lat="36.055410" lon="-112.104520">
        <ele>2171.415</ele>
        <time>2018-12-28T16:05:16Z</time>
      </trkpt>
      <trkpt lat="36.055540" lon="-112.104530">
        <ele>2171.326</ele>
        <time>2018-12-28T16:05:36Z</time>
      </trkpt>
      <trkpt lat="36.055580" lon="-112.104530">
        <ele>2171.308</ele>
        <time>2018-12-28T16:05:56Z</time>
      </trkpt>
      <trkpt lat="36.055630" lon="-112.104540">
        <ele>2171.312</ele>
        <time>2018-12-28T16:06:16Z</time>
      </trkpt>
      <trkpt lat="36.055710" lon="-112.104550">
        <ele>2171.250</ele>
        <time>2018-12-28T16:06:36Z</time>
      </trkpt>
      <trkpt lat="36.055780" lon="-112.104560">
        <ele>2171.265</ele>
        <time>2018-12-28T16:06:56Z</time>
      </trkpt>
      <trkpt lat="36.055870" lon="-112.104570">
        <ele>2171.246</ele>
        <time>2018-12-28T16:07:16Z</time>
      </trkpt>
      <trkpt lat="36.055930" lon="-112.104590">
        <ele>2171.231</ele>
        <time>2018-12-28T16:07:36Z</time>
      </trkpt>
      <trkpt lat="36.056000" lon="-112.104600">
        <ele>2171.111</ele>
        <time>2018-12-28T16:07:56Z</time>
      </trkpt>
      <trkpt lat="36.056080" lon="-112.104620">
        <ele>2171.183</ele>
        <time>2018-12-28T16:08:16Z</time>
      </trkpt>
      <trkpt lat="36.056170" lon="-112.104640">
        <ele>2171.197</ele>
        <time>2018-12-28T16:08:36Z</time>
      </trkpt>
      <trkpt lat="36.056240" lon="-112.104660">
        <ele>2171.141</ele>
        <time>2018-12-28T16:08:56Z</time>
      </trkpt>
      <trkpt lat="36.056330" lon="-112.104680">
        <ele>2171.181</ele>
        <time>2018-12-28T16:09:16Z</time>
      </trkpt>
      <trkpt lat="36.056410" lon="-112.104700">
        <ele>2171.109</ele>
        <time>2018-12-28T16:09:36Z</time>
      </trkpt>
      <trkpt lat="36.056510" lon="-112.104730">
        <ele>2171.208</ele>
        <time>2018-12-28T16:09:56Z</time>
      </trkpt>
      <trkpt lat="36.056590" lon="-112.104760">
        <ele>2171.297</ele>
        <time>2018-12-28T16:10:16Z</time>
      </trkpt>
      <trkpt lat="36.056680" lon="-112.104800">
        <ele>2171.265</ele>
        <time>2018-12-28T16:10:36Z</time>
      </trkpt>
      <trkpt lat="36.056760" lon="-112.104830">
        <ele>2171.250</ele>
        <time>2018-12-28T16:10:56Z</time>
      </trkpt>
      <trkpt lat="36.056810" lon="-112.104860">
        <ele>2171.261</ele>
        <time>2018-12-28T16:11:16Z</time>
      </trkpt>
      <trkpt lat="36.056850" lon="-112.104880">
        <ele>2171.286</ele>
        <time>2018-12-28T16:11:36Z</time>
      </trkpt>
      <trkpt lat="36.056890" lon="-112.104900">
        <ele>2171.246</ele>
        <time>2018-12-28T16:11:56Z</time>
      </trkpt>
      <trkpt lat="36.056910" lon="-112.104920">
        <ele>2171.258</ele>
        <time>2018-12-28T16:12:16Z</time>
      </trkpt>
      <trkpt lat="36.056990" lon="-112.104980">
        <ele>2171.272</ele>
        <time>2018-12-28T16:12:36Z</time>
      </trkpt>
      <trkpt lat="36.057020" lon="-112.105010">
        <ele>2171.248</ele>
        <time>2018-12-28T16:12:56Z</time>
      </trkpt>
      <trkpt lat="36.057050" lon="-112.105030">
        <ele>2171.361</ele>
        <time>2018-12-28T16:13:16Z</time>
      </trkpt>
      <trkpt lat="36.057070" lon="-112.105060">
        <ele>2171.317</ele>
        <time>2018-12-28T16:13:36Z</time>
      </trkpt>
      <trkpt lat="36.057100" lon="-112.105090">
        <ele>2171.308</ele>
        <time>2018-12-28T16:13:56Z</time>
      </trkpt>
      <trkpt lat="36.057140" lon="-112.105150">
        <ele>2171.477</ele>
        <time>2018-12-28T16:14:16Z</time>
      </trkpt>
      <trkpt lat="36.057170" lon="-112.105200">
        <ele>2171.495</ele>
        <time>2018-12-28T16:14:36Z</time>
      </trkpt>
      <trkpt lat="36.057220" lon="-112.105270">
        <ele>2171.590</ele>
        <time>2018-12-28T16:14:56Z</time>
      </trkpt>
      <trkpt lat="36.057230" lon="-112.105300">
        <ele>2171.521</ele>
        <time>2018-12-28T16:15:16Z</time>
      </trkpt>
      <trkpt lat="36.057260" lon="-112.105340">
        <ele>2171.536</ele>
        <time>2018-12-28T16:15:36Z</time>
      </trkpt>
      <trkpt lat="36.057300" lon="-112.105440">
        <ele>2171.576</ele>
        <time>2018-12-28T16:15:56Z</time>
      </trkpt>
      <trkpt lat="36.057298" lon="-112.105443">
        <ele>2171.518</ele>
        <time>2018-12-28T16:16:16Z</time>
      </trkpt>
      <trkpt lat="36.057440" lon="-112.105380">
        <ele>2171.722</ele>
        <time>2018-12-28T16:16:36Z</time>
      </trkpt>
      <trkpt lat="36.057480" lon="-112.105360">
        <ele>2171.839</ele>
        <time>2018-12-28T16:16:56Z</time>
      </trkpt>
      <trkpt lat="36.057520" lon="-112.105350">
        <ele>2171.901</ele>
        <time>2018-12-28T16:17:16Z</time>
      </trkpt>
      <trkpt lat="36.057570" lon="-112.105340">
        <ele>2171.921</ele>
        <time>2018-12-28T16:17:36Z</time>
      </trkpt>
      <trkpt lat="36.057610" lon="-112.105340">
        <ele>2172.008</ele>
        <time>2018-12-28T16:17:56Z</time>
      </trkpt>
      <trkpt lat="36.057650" lon="-112.105350">
        <ele>2172.056</ele>
        <time>2018-12-28T16:18:16Z</time>
      </trkpt>
      <trkpt lat="36.057690" lon="-112.105350">
        <ele>2172.134</ele>
        <time>2018-12-28T16:18:36Z</time>
      </trkpt>
      <trkpt lat="36.057740" lon="-112.105360">
        <ele>2172.159</ele>
        <time>2018-12-28T16:18:56Z</time>
      </trkpt>
      <trkpt lat="36.057770" lon="-112.105380">
        <ele>2172.130</ele>
        <time>2018-12-28T16:19:16Z</time>
      </trkpt>
      <trkpt lat="36.057820" lon="-112.105400">
        <ele>2172.285</ele>
        <time>2018-12-28T16:19:36Z</time>
      </trkpt>
      <trkpt lat="36.057860" lon="-112.105430">
        <ele>2172.295</ele>
        <time>2018-12-28T16:19:56Z</time>
      </trkpt>
      <trkpt lat="36.057890" lon="-112.105460">
        <ele>2172.177</ele>
        <time>2018-12-28T16:20:16Z</time>
      </trkpt>
      <trkpt lat="36.057920" lon="-112.105490">
        <ele>2172.111</ele>
        <time>2018-12-28T16:20:36Z</time>
      </trkpt>
      <trkpt lat="36.057940" lon="-112.105510">
        <ele>2172.169</ele>
        <time>2018-12-28T16:20:56Z</time>
      </trkpt>
      <trkpt lat="36.057970" lon="-112.105550">
        <ele>2172.104</ele>
        <time>2018-12-28T16:21:16Z</time>
      </trkpt>
      <trkpt lat="36.058000" lon="-112.105600">
        <ele>2172.124</ele>
        <time>2018-12-28T16:21:36Z</time>
      </trkpt>
      <trkpt lat="36.058020" lon="-112.105640">
        <ele>2172.108</ele>
        <time>2018-12-28T16:21:56Z</time>
      </trkpt>
      <trkpt lat="36.058030" lon="-112.105680">
        <ele>2172.139</ele>
        <time>2018-12-28T16:22:16Z</time>
      </trkpt>
      <trkpt lat="36.058050" lon="-112.105730">
        <ele>2172.037</ele>
        <time>2018-12-28T16:22:36Z</time>
      </trkpt>
      <trkpt lat="36.058060" lon="-112.105770">
        <ele>2172.072</ele>
        <time>2018-12-28T16:22:56Z</time>
      </trkpt>
      <trkpt lat="36.058060" lon="-112.105810">
        <ele>2171.943</ele>
        <time>2018-12-28T16:23:16Z</time>
      </trkpt>
      <trkpt lat="36.058070" lon="-112.105860">
        <ele>2171.988</ele>
        <time>2018-12-28T16:23:36Z</time>
      </trkpt>
      <trkpt lat="36.058070" lon="-112.105920">
        <ele>2171.828</ele>
        <time>2018-12-28T16:23:56Z</time>
      </trkpt>
      <trkpt lat="36.058070" lon="-112.105970">
        <ele>2171.770</ele>
        <time>2018-12-28T16:24:16Z</time>
      </trkpt>
      <trkpt lat="36.058070" lon="-112.105990">
        <ele>2171.774</ele>
        <time>2018-12-28T16:24:36Z</time>
      </trkpt>
      <trkpt lat="36.058060" lon="-112.106010">
        <ele>2171.653</ele>
        <time>2018-12-28T16:24:56Z</time>
      </trkpt>
      <trkpt lat="36.058060" lon="-112.106040">
        <ele>2171.604</ele>
        <time>2018-12-28T16:25:16Z</time>
      </trkpt>
      <trkpt lat="36.058050" lon="-112.106060">
        <ele>2171.514</ele>
        <time>2018-12-28T16:25:36Z</time>
      </trkpt>
      <trkpt lat="36.058050" lon="-112.106090">
        <ele>2171.508</ele>
        <time>2018-12-28T16:25:56Z</time>
      </trkpt>
      <trkpt lat="36.058030" lon="-112.106150">
        <ele>2171.438</ele>
        <time>2018-12-28T16:26:16Z</time>
      </trkpt>
      <trkpt lat="36.058010" lon="-112.106220">
        <ele>2171.276</ele>
        <time>2018-12-28T16:26:36Z</time>
      </trkpt>
      <trkpt lat="36.057980" lon="-112.106290">
        <ele>2171.141</ele>
        <time>2018-12-28T16:26:56Z</time>
      </trkpt>
      <trkpt lat="36.057930" lon="-112.106430">
        <ele>2170.772</ele>
        <time>2018-12-28T16:27:16Z</time>
      </trkpt>
      <trkpt lat="36.057820" lon="-112.106680">
        <ele>2169.857</ele>
        <time>2018-12-28T16:27:36Z</time>
      </trkpt>
      <trkpt lat="36.057760" lon="-112.106820">
        <ele>2169.357</ele>
        <time>2018-12-28T16:27:56Z</time>
      </trkpt>
      <trkpt lat="36.057660" lon="-112.107010">
        <ele>2168.629</ele>
        <time>2018-12-28T16:28:16Z</time>
      </trkpt>
      <trkpt lat="36.057630" lon="-112.107060">
        <ele>2168.483</ele>
        <time>2018-12-28T16:28:36Z</time>
      </trkpt>
      <trkpt lat="36.057610" lon="-112.107090">
        <ele>2168.335</ele>
        <time>2018-12-28T16:28:56Z</time>
      </trkpt>
      <trkpt lat="36.057580" lon="-112.107130">
        <ele>2168.186</ele>
        <time>2018-12-28T16:29:16Z</time>
      </trkpt>
      <trkpt lat="36.057540" lon="-112.107170">
        <ele>2167.914</ele>
        <time>2018-12-28T16:29:36Z</time>
      </trkpt>
      <trkpt lat="36.057510" lon="-112.107180">
        <ele>2167.808</ele>
        <time>2018-12-28T16:29:56Z</time>
      </trkpt>
      <trkpt lat="36.057490" lon="-112.107200">
        <ele>2167.726</ele>
        <time>2018-12-28T16:30:16Z</time>
      </trkpt>
      <trkpt lat="36.057460" lon="-112.107210">
        <ele>2167.644</ele>
        <time>2018-12-28T16:30:36Z</time>
      </trkpt>
      <trkpt lat="36.057440" lon="-112.107220">
        <ele>2167.689</ele>
        <time>2018-12-28T16:30:56Z</time>
      </trkpt>
      <trkpt lat="36.057420" lon="-112.107220">
        <ele>2167.570</ele>
        <time>2018-12-28T16:31:16Z</time>
      </trkpt>
      <trkpt lat="36.057390" lon="-112.107220">
        <ele>2167.435</ele>
        <time>2018-12-28T16:31:36Z</time>
      </trkpt>
      <trkpt lat="36.057360" lon="-112.107220">
        <ele>2167.415</ele>
        <time>2018-12-28T16:31:56Z</time>
      </trkpt>
      <trkpt lat="36.057330" lon="-112.107220">
        <ele>2167.397</ele>
        <time>2018-12-28T16:32:16Z</time>
      </trkpt>
      <trkpt lat="36.057290" lon="-112.107210">
        <ele>2167.351</ele>
        <time>2018-12-28T16:32:36Z</time>
      </trkpt>
      <trkpt lat="36.057270" lon="-112.107200">
        <ele>2167.347</ele>
        <time>2018-12-28T16:32:56Z</time>
      </trkpt>
      <trkpt lat="36.057250" lon="-112.107190">
        <ele>2167.229</ele>
        <time>2018-12-28T16:33:16Z</time>
      </trkpt>
      <trkpt lat="36.057220" lon="-112.107170">
        <ele>2167.221</ele>
        <time>2018-12-28T16:33:36Z</time>
      </trkpt>
      <trkpt lat="36.057110" lon="-112.107100">
        <ele>2167.208</ele>
        <time>2018-12-28T16:33:56Z</time>
      </trkpt>
      <trkpt lat="36.057020" lon="-112.107060">
        <ele>2167.227</ele>
        <time>2018-12-28T16:34:16Z</time>
      </trkpt>
      <trkpt lat="36.057023" lon="-112.107055">
        <ele>2167.225</ele>
        <time>2018-12-28T16:34:36Z</time>
      </trkpt>
      <trkpt lat="36.057130" lon="-112.106900">
        <ele>2167.990</ele>
        <time>2018-12-28T16:34:56Z</time>
      </trkpt>
      <trkpt lat="36.057180" lon="-112.106820">
        <ele>2168.241</ele>
        <time>2018-12-28T16:35:16Z</time>
      </trkpt>
      <trkpt lat="36.057220" lon="-112.106770">
        <ele>2168.486</ele>
        <time>2018-12-28T16:35:36Z</time>
      </trkpt>
      <trkpt lat="36.057250" lon="-112.106710">
        <ele>2168.676</ele>
        <time>2018-12-28T16:35:56Z</time>
      </trkpt>
      <trkpt lat="36.057290" lon="-112.106620">
        <ele>2168.968</ele>
        <time>2018-12-28T16:36:16Z</time>
      </trkpt>
      <trkpt lat="36.057330" lon="-112.106510">
        <ele>2169.342</ele>
        <time>2018-12-28T16:36:36Z</time>
      </trkpt>
      <trkpt lat="36.057350" lon="-112.106450">
        <ele>2169.536</ele>
        <time>2018-12-28T16:36:56Z</time>
      </trkpt>
      <trkpt lat="36.057370" lon="-112.106390">
        <ele>2169.717</ele>
        <time>2018-12-28T16:37:16Z</time>
      </trkpt>
      <trkpt lat="36.057390" lon="-112.106300">
        <ele>2169.918</ele>
        <time>2018-12-28T16:37:36Z</time>
      </trkpt>
      <trkpt lat="36.057400" lon="-112.106200">
        <ele>2170.208</ele>
        <time>2018-12-28T16:37:56Z</time>
      </trkpt>
      <trkpt lat="36.057410" lon="-112.106130">
        <ele>2170.496</ele>
        <time>2018-12-28T16:38:16Z</time>
      </trkpt>
      <trkpt lat="36.057410" lon="-112.106060">
        <ele>2170.554</ele>
        <time>2018-12-28T16:38:36Z</time>
      </trkpt>
      <trkpt lat="36.057410" lon="-112.105990">
        <ele>2170.789</ele>
        <time>2018-12-28T16:38:56Z</time>
      </trkpt>
      <trkpt lat="36.057410" lon="-112.105910">
        <ele>2170.860</ele>
        <time>2018-12-28T16:39:16Z</time>
      </trkpt>
      <trkpt lat="36.057400" lon="-112.105850">
        <ele>2171.055</ele>
        <time>2018-12-28T16:39:36Z</time>
      </trkpt>
      <trkpt lat="36.057400" lon="-112.105800">
        <ele>2171.155</ele>
        <time>2018-12-28T16:39:56Z</time>
      </trkpt>
      <trkpt lat="36.057370" lon="-112.105690">
        <ele>2171.227</ele>
        <time>2018-12-28T16:40:16Z</time>
      </trkpt>
      <trkpt lat="36.057340" lon="-112.105570">
        <ele>2171.411</ele>
        <time>2018-12-28T16:40:36Z</time>
      </trkpt>
      <trkpt lat="36.057300" lon="-112.105460">
        <ele>2171.448</ele>
        <time>2018-12-28T16:40:56Z</time>
      </trkpt>
      <trkpt lat="36.057300" lon="-112.105440">
        <ele>2171.561</ele>
        <time>2018-12-28T16:41:16Z</time>
      </trkpt>
      <trkpt lat="36.057298" lon="-112.105443">
        <ele>2171.517</ele>
        <time>2018-12-28T16:41:36Z</time>
      </trkpt>
      <trkpt lat="36.057260" lon="-112.105340">
        <ele>2171.508</ele>
        <time>2018-12-28T16:41:56Z</time>
      </trkpt>
      <trkpt lat="36.057230" lon="-112.105300">
        <ele>2171.557</ele>
        <time>2018-12-28T16:42:16Z</time>
      </trkpt>
      <trkpt lat="36.057220" lon="-112.105270">
        <ele>2171.545</ele>
        <time>2018-12-28T16:42:36Z</time>
      </trkpt>
      <trkpt lat="36.057170" lon="-112.105200">
        <ele>2171.480</ele>
        <time>2018-12-28T16:42:56Z</time>
      </trkpt>
      <trkpt lat="36.057140" lon="-112.105150">
        <ele>2171.451</ele>
        <time>2018-12-28T16:43:16Z</time>
      </trkpt>
      <trkpt lat="36.057100" lon="-112.105090">
        <ele>2171.356</ele>
        <time>2018-12-28T16:43:36Z</time>
      </trkpt>
      <trkpt lat="36.057070" lon="-112.105060">
        <ele>2171.396</ele>
        <time>2018-12-28T16:43:56Z</time>
      </trkpt>
      <trkpt lat="36.057050" lon="-112.105030">
        <ele>2171.338</ele>
        <time>2018-12-28T16:44:16Z</time>
      </trkpt>
      <trkpt lat="36.057020" lon="-112.105010">
        <ele>2171.292</ele>
        <time>2018-12-28T16:44:36Z</time>
      </trkpt>
      <trkpt lat="36.056990" lon="-112.104980">
        <ele>2171.263</ele>
        <time>2018-12-28T16:44:56Z</time>
      </trkpt>
      <trkpt lat="36.056910" lon="-112.104920">
        <ele>2171.244</ele>
        <time>2018-12-28T16:45:16Z</time>
      </trkpt>
      <trkpt lat="36.056890" lon="-112.104900">
        <ele>2171.218</ele>
        <time>2018-12-28T16:45:36Z</time>
      </trkpt>
      <trkpt lat="36.056850" lon="-112.104880">
        <ele>2171.208</ele>
        <time>2018-12-28T16:45:56Z</time>
      </trkpt>
      <trkpt lat="36.056810" lon="-112.104860">
        <ele>2171.269</ele>
        <time>2018-12-28T16:46:16Z</time>
      </trkpt>
      <trkpt lat="36.056760" lon="-112.104830">
        <ele>2171.237</ele>
        <time>2018-12-28T16:46:36Z</time>
      </trkpt>
      <trkpt lat="36.056680" lon="-112.104800">
        <ele>2171.252</ele>
        <time>2018-12-28T16:46:56Z</time>
      </trkpt>
      <trkpt lat="36.056590" lon="-112.104760">
        <ele>2171.223</ele>
        <time>2018-12-28T16:47:16Z</time>
      </trkpt>
      <trkpt lat="36.056510" lon="-112.104730">
        <ele>2171.248</ele>
        <time>2018-12-28T16:47:36Z</time>
      </trkpt>
      <trkpt lat="36.056410" lon="-112.104700">
        <ele>2171.178</ele>
        <time>2018-12-28T16:47:56Z</time>
      </trkpt>
      <trkpt lat="36.056330" lon="-112.104680">
        <ele>2171.110</ele>
        <time>2018-12-28T16:48:16Z</time>
      </trkpt>
      <trkpt lat="36.056240" lon="-112.104660">
        <ele>2171.164</ele>
        <time>2018-12-28T16:48:36Z</time>
      </trkpt>
      <trkpt lat="36.056170" lon="-112.104640">
        <ele>2171.182</ele>
        <time>2018-12-28T16:48:56Z</time>
      </trkpt>
      <trkpt lat="36.056080" lon="-112.104620">
        <ele>2171.143</ele>
        <time>2018-12-28T16:49:16Z</time>
      </trkpt>
      <trkpt lat="36.056000" lon="-112.104600">
        <ele>2171.117</ele>
        <time>2018-12-28T16:49:36Z</time>
      </trkpt>
      <trkpt lat="36.055930" lon="-112.104590">
        <ele>2171.208</ele>
        <time>2018-12-28T16:49:56Z</time>
      </trkpt>
      <trkpt lat="36.055870" lon="-112.104570">
        <ele>2171.271</ele>
        <time>2018-12-28T16:50:16Z</time>
      </trkpt>
      <trkpt lat="36.055780" lon="-112.104560">
        <ele>2171.219</ele>
        <time>2018-12-28T16:50:36Z</time>
      </trkpt>
      <trkpt lat="36.055710" lon="-112.104550">
        <ele>2171.214</ele>
        <time>2018-12-28T16:50:56Z</time>
      </trkpt>
      <trkpt lat="36.055630" lon="-112.104540">
        <ele>2171.325</ele>
        <time>2018-12-28T16:51:16Z</time>
      </trkpt>
      <trkpt lat="36.055580" lon="-112.104530">
        <ele>2171.330</ele>
        <time>2018-12-28T16:51:36Z</time>
      </trkpt>
      <trkpt lat="36.055540" lon="-112.104530">
        <ele>2171.350</ele>
        <time>2018-12-28T16:51:56Z</time>
      </trkpt>
      <trkpt lat="36.055410" lon="-112.104520">
        <ele>2171.482</ele>
        <time>2018-12-28T16:52:16Z</time>
      </trkpt>
      <trkpt lat="36.055350" lon="-112.104520">
        <ele>2171.446</ele>
        <time>2018-12-28T16:52:36Z</time>
      </trkpt>
      <trkpt lat="36.055210" lon="-112.104510">
        <ele>2171.294</ele>
        <time>2018-12-28T16:52:56Z</time>
      </trkpt>
      <trkpt lat="36.055040" lon="-112.104500">
        <ele>2171.257</ele>
        <time>2018-12-28T16:53:16Z</time>
      </trkpt>
      <trkpt lat="36.054910" lon="-112.104510">
        <ele>2171.222</ele>
        <time>2018-12-28T16:53:36Z</time>
      </trkpt>
      <trkpt lat="36.054770" lon="-112.104520">
        <ele>2171.208</ele>
        <time>2018-12-28T16:53:56Z</time>
      </trkpt>
      <trkpt lat="36.054640" lon="-112.104530">
        <ele>2171.272</ele>
        <time>2018-12-28T16:54:16Z</time>
      </trkpt>
      <trkpt lat="36.054490" lon="-112.104550">
        <ele>2171.210</ele>
        <time>2018-12-28T16:54:36Z</time>
      </trkpt>
      <trkpt lat="36.054350" lon="-112.104570">
        <ele>2171.175</ele>
        <time>2018-12-28T16:54:56Z</time>
      </trkpt>
      <trkpt lat="36.054220" lon="-112.104590">
        <ele>2171.036</ele>
        <time>2018-12-28T16:55:16Z</time>
      </trkpt>
      <trkpt lat="36.054120" lon="-112.104640">
        <ele>2171.081</ele>
        <time>2018-12-28T16:55:36Z</time>
      </trkpt>
      <trkpt lat="36.053980" lon="-112.104680">
        <ele>2170.871</ele>
        <time>2018-12-28T16:55:56Z</time>
      </trkpt>
      <trkpt lat="36.053750" lon="-112.104760">
        <ele>2170.243</ele>
        <time>2018-12-28T16:56:16Z</time>
      </trkpt>
      <trkpt lat="36.053270" lon="-112.104980">
        <ele>2170.257</ele>
        <time>2018-12-28T16:56:36Z</time>
      </trkpt>
      <trkpt lat="36.053070" lon="-112.105080">
        <ele>2170.177</ele>
        <time>2018-12-28T16:56:56Z</time>
      </trkpt>
      <trkpt lat="36.052890" lon="-112.105170">
        <ele>2170.061</ele>
        <time>2018-12-28T16:57:16Z</time>
      </trkpt>
      <trkpt lat="36.052810" lon="-112.105220">
        <ele>2169.827</ele>
        <time>2018-12-28T16:57:36Z</time>
      </trkpt>
      <trkpt lat="36.052310" lon="-112.105550">
        <ele>2167.308</ele>
        <time>2018-12-28T16:57:56Z</time>
      </trkpt>
      <trkpt lat="36.051870" lon="-112.105910">
        <ele>2164.690</ele>
        <time>2018-12-28T16:58:16Z</time>
      </trkpt>
      <trkpt lat="36.051630" lon="-112.106120">
        <ele>2163.578</ele>
        <time>2018-12-28T16:58:36Z</time>
      </trkpt>
      <trkpt lat="36.051530" lon="-112.106220">
        <ele>2163.253</ele>
        <time>2018-12-28T16:58:56Z</time>
      </trkpt>
      <trkpt lat="36.051420" lon="-112.106320">
        <ele>2162.874</ele>
        <time>2018-12-28T16:59:16Z</time>
      </trkpt>
      <trkpt lat="36.051320" lon="-112.106430">
        <ele>2162.549</ele>
        <time>2018-12-28T16:59:36Z</time>
      </trkpt>
      <trkpt lat="36.051180" lon="-112.106590">
        <ele>2161.949</ele>
        <time>2018-12-28T16:59:56Z</time>
      </trkpt>
      <trkpt lat="36.051040" lon="-112.106750">
        <ele>2161.431</ele>
        <time>2018-12-28T17:00:16Z</time>
      </trkpt>
      <trkpt lat="36.050820" lon="-112.107010">
        <ele>2160.875</ele>
        <time>2018-12-28T17:00:36Z</time>
      </trkpt>
      <trkpt lat="36.050580" lon="-112.107390">
        <ele>2160.542</ele>
        <time>2018-12-28T17:00:56Z</time>
      </trkpt>
      <trkpt lat="36.050440" lon="-112.107620">
        <ele>2160.422</ele>
        <time>2018-12-28T17:01:16Z</time>
      </trkpt>
      <trkpt lat="36.050310" lon="-112.107840">
        <ele>2160.414</ele>
        <time>2018-12-28T17:01:36Z</time>
      </trkpt>
      <trkpt lat="36.050210" lon="-112.108010">
        <ele>2160.308</ele>
        <time>2018-12-28T17:01:56Z</time>
      </trkpt>
      <trkpt lat="36.050120" lon="-112.108170">
        <ele>2160.257</ele>
        <time>2018-12-28T17:02:16Z</time>
      </trkpt>
      <trkpt lat="36.049990" lon="-112.108400">
        <ele>2159.785</ele>
        <time>2018-12-28T17:02:36Z</time>
      </trkpt>
      <trkpt lat="36.049710" lon="-112.108920">
        <ele>2158.520</ele>
        <time>2018-12-28T17:02:56Z</time>
      </trkpt>
      <trkpt lat="36.049530" lon="-112.109270">
        <ele>2157.211</ele>
        <time>2018-12-28T17:03:16Z</time>
      </trkpt>
      <trkpt lat="36.049290" lon="-112.109730">
        <ele>2155.116</ele>
        <time>2018-12-28T17:03:36Z</time>
      </trkpt>
      <trkpt lat="36.049060" lon="-112.110190">
        <ele>2152.746</ele>
        <time>2018-12-28T17:03:56Z</time>
      </trkpt>
      <trkpt lat="36.048830" lon="-112.110680">
        <ele>2150.978</ele>
        <time>2018-12-28T17:04:16Z</time>
      </trkpt>
      <trkpt lat="36.048630" lon="-112.111120">
        <ele>2150.132</ele>
        <time>2018-12-28T17:04:36Z</time>
      </trkpt>
      <trkpt lat="36.048400" lon="-112.111640">
        <ele>2149.534</ele>
        <time>2018-12-28T17:04:56Z</time>
      </trkpt>
      <trkpt lat="36.048260" lon="-112.111970">
        <ele>2149.255</ele>
        <time>2018-12-28T17:05:16Z</time>
      </trkpt>
      <trkpt lat="36.048110" lon="-112.112330">
        <ele>2148.910</ele>
        <time>2018-12-28T17:05:36Z</time>
      </trkpt>
      <trkpt lat="36.047910" lon="-112.112810">
        <ele>2148.408</ele>
        <time>2018-12-28T17:05:56Z</time>
      </trkpt>
      <trkpt lat="36.047770" lon="-112.113170">
        <ele>2147.646</ele>
        <time>2018-12-28T17:06:16Z</time>
      </trkpt>
      <trkpt lat="36.047590" lon="-112.113670">
        <ele>2146.224</ele>
        <time>2018-12-28T17:06:36Z</time>
      </trkpt>
      <trkpt lat="36.047420" lon="-112.114140">
        <ele>2145.169</ele>
        <time>2018-12-28T17:06:56Z</time>
      </trkpt>
      <trkpt lat="36.047370" lon="-112.114270">
        <ele>2144.860</ele>
        <time>2018-12-28T17:07:16Z</time>
      </trkpt>
      <trkpt lat="36.047300" lon="-112.114460">
        <ele>2144.255</ele>
        <time>2018-12-28T17:07:36Z</time>
      </trkpt>
      <trkpt lat="36.047250" lon="-112.114600">
        <ele>2143.715</ele>
        <time>2018-12-28T17:07:56Z</time>
      </trkpt>
      <trkpt lat="36.047190" lon="-112.114760">
        <ele>2143.097</ele>
        <time>2018-12-28T17:08:16Z</time>
      </trkpt>
      <trkpt lat="36.047130" lon="-112.114940">
        <ele>2142.381</ele>
        <time>2018-12-28T17:08:36Z</time>
      </trkpt>
      <trkpt lat="36.047070" lon="-112.115080">
        <ele>2141.827</ele>
        <time>2018-12-28T17:08:56Z</time>
      </trkpt>
      <trkpt lat="36.047050" lon="-112.115140">
        <ele>2141.668</ele>
        <time>2018-12-28T17:09:16Z</time>
      </trkpt>
      <trkpt lat="36.047020" lon="-112.115230">
        <ele>2141.314</ele>
        <time>2018-12-28T17:09:36Z</time>
      </trkpt>
      <trkpt lat="36.047000" lon="-112.115280">
        <ele>2141.108</ele>
        <time>2018-12-28T17:09:56Z</time>
      </trkpt>
      <trkpt lat="36.046970" lon="-112.115350">
        <ele>2140.995</ele>
        <time>2018-12-28T17:10:16Z</time>
      </trkpt>
      <trkpt lat="36.046950" lon="-112.115400">
        <ele>2140.773</ele>
        <time>2018-12-28T17:10:36Z</time>
      </trkpt>
      <trkpt lat="36.046920" lon="-112.115460">
        <ele>2140.638</ele>
        <time>2018-12-28T17:10:56Z</time>
      </trkpt>
      <trkpt lat="36.046890" lon="-112.115540">
        <ele>2140.599</ele>
        <time>2018-12-28T17:11:16Z</time>
      </trkpt>
      <trkpt lat="36.046840" lon="-112.115650">
        <ele>2140.344</ele>
        <time>2018-12-28T17:11:36Z</time>
      </trkpt>
      <trkpt lat="36.046800" lon="-112.115740">
        <ele>2140.264</ele>
        <time>2018-12-28T17:11:56Z</time>
      </trkpt>
      <trkpt lat="36.046750" lon="-112.115850">
        <ele>2140.116</ele>
        <time>2018-12-28T17:12:16Z</time>
      </trkpt>
      <trkpt lat="36.046670" lon="-112.116010">
        <ele>2140.090</ele>
        <time>2018-12-28T17:12:36Z</time>
      </trkpt>
      <trkpt lat="36.046550" lon="-112.116250">
        <ele>2139.914</ele>
        <time>2018-12-28T17:12:56Z</time>
      </trkpt>
      <trkpt lat="36.046400" lon="-112.116540">
        <ele>2139.554</ele>
        <time>2018-12-28T17:13:16Z</time>
      </trkpt>
      <trkpt lat="36.046310" lon="-112.116690">
        <ele>2139.009</ele>
        <time>2018-12-28T17:13:36Z</time>
      </trkpt>
      <trkpt lat="36.046270" lon="-112.116780">
        <ele>2138.808</ele>
        <time>2018-12-28T17:13:56Z</time>
      </trkpt>
      <trkpt lat="36.046240" lon="-112.116820">
        <ele>2138.684</ele>
        <time>2018-12-28T17:14:16Z</time>
      </trkpt>
      <trkpt lat="36.046220" lon="-112.116870">
        <ele>2138.542</ele>
        <time>2018-12-28T17:14:36Z</time>
      </trkpt>
      <trkpt lat="36.046140" lon="-112.116990">
        <ele>2138.227</ele>
        <time>2018-12-28T17:14:56Z</time>
      </trkpt>
      <trkpt lat="36.046070" lon="-112.117110">
        <ele>2138.048</ele>
        <time>2018-12-28T17:15:16Z</time>
      </trkpt>
      <trkpt lat="36.045990" lon="-112.117240">
        <ele>2137.663</ele>
        <time>2018-12-28T17:15:36Z</time>
      </trkpt>
      <trkpt lat="36.045890" lon="-112.117390">
        <ele>2137.213</ele>
        <time>2018-12-28T17:15:56Z</time>
      </trkpt>
      <trkpt lat="36.045820" lon="-112.117490">
        <ele>2136.915</ele>
        <time>2018-12-28T17:16:16Z</time>
      </trkpt>
      <trkpt lat="36.045810" lon="-112.117510">
        <ele>2136.889</ele>
        <time>2018-12-28T17:16:36Z</time>
      </trkpt>
      <trkpt lat="36.045770" lon="-112.117570">
        <ele>2136.638</ele>
        <time>2018-12-28T17:16:56Z</time>
      </trkpt>
      <trkpt lat="36.045620" lon="-112.117780">
        <ele>2136.170</ele>
        <time>2018-12-28T17:17:16Z</time>
      </trkpt>
      <trkpt lat="36.045520" lon="-112.117900">
        <ele>2135.717</ele>
        <time>2018-12-28T17:17:36Z</time>
      </trkpt>
      <trkpt lat="36.045490" lon="-112.117950">
        <ele>2135.608</ele>
        <time>2018-12-28T17:17:56Z</time>
      </trkpt>
      <trkpt lat="36.045430" lon="-112.118020">
        <ele>2135.446</ele>
        <time>2018-12-28T17:18:16Z</time>
      </trkpt>
      <trkpt lat="36.045330" lon="-112.118150">
        <ele>2135.054</ele>
        <time>2018-12-28T17:18:36Z</time>
      </trkpt>
      <trkpt lat="36.045230" lon="-112.118280">
        <ele>2134.619</ele>
        <time>2018-12-28T17:18:56Z</time>
      </trkpt>
      <trkpt lat="36.045120" lon="-112.118410">
        <ele>2134.330</ele>
        <time>2018-12-28T17:19:16Z</time>
      </trkpt>
      <trkpt lat="36.044930" lon="-112.118630">
        <ele>2132.715</ele>
        <time>2018-12-28T17:19:36Z</time>
      </trkpt>
      <trkpt lat="36.044770" lon="-112.118800">
        <ele>2131.335</ele>
        <time>2018-12-28T17:19:56Z</time>
      </trkpt>
      <trkpt lat="36.044660" lon="-112.118920">
        <ele>2130.377</ele>
        <time>2018-12-28T17:20:16Z</time>
      </trkpt>
      <trkpt lat="36.044540" lon="-112.119040">
        <ele>2129.131</ele>
        <time>2018-12-28T17:20:36Z</time>
      </trkpt>
      <trkpt lat="36.044450" lon="-112.119130">
        <ele>2128.253</ele>
        <time>2018-12-28T17:20:56Z</time>
      </trkpt>
      <trkpt lat="36.044320" lon="-112.119250">
        <ele>2126.804</ele>
        <time>2018-12-28T17:21:16Z</time>
      </trkpt>
      <trkpt lat="36.044220" lon="-112.119350">
        <ele>2125.714</ele>
        <time>2018-12-28T17:21:36Z</time>
      </trkpt>
      <trkpt lat="36.044130" lon="-112.119430">
        <ele>2124.908</ele>
        <time>2018-12-28T17:21:56Z</time>
      </trkpt>
      <trkpt lat="36.044040" lon="-112.119510">
        <ele>2124.018</ele>
        <time>2018-12-28T17:22:16Z</time>
      </trkpt>
      <trkpt lat="36.043930" lon="-112.119600">
        <ele>2123.166</ele>
        <time>2018-12-28T17:22:36Z</time>
      </trkpt>
      <trkpt lat="36.043810" lon="-112.119700">
        <ele>2122.421</ele>
        <time>2018-12-28T17:22:56Z</time>
      </trkpt>
      <trkpt lat="36.043660" lon="-112.119820">
        <ele>2121.962</ele>
        <time>2018-12-28T17:23:16Z</time>
      </trkpt>
      <trkpt lat="36.043530" lon="-112.119920">
        <ele>2121.657</ele>
        <time>2018-12-28T17:23:36Z</time>
      </trkpt>
      <trkpt lat="36.043380" lon="-112.120030">
        <ele>2121.337</ele>
        <time>2018-12-28T17:23:56Z</time>
      </trkpt>
      <trkpt lat="36.043260" lon="-112.120110">
        <ele>2121.059</ele>
        <time>2018-12-28T17:24:16Z</time>
      </trkpt>
      <trkpt lat="36.043050" lon="-112.120250">
        <ele>2120.273</ele>
        <time>2018-12-28T17:24:36Z</time>
      </trkpt>
      <trkpt lat="36.042930" lon="-112.120330">
        <ele>2119.815</ele>
        <time>2018-12-28T17:24:56Z</time>
      </trkpt>
      <trkpt lat="36.042850" lon="-112.120380">
        <ele>2119.365</ele>
        <time>2018-12-28T17:25:16Z</time>
      </trkpt>
      <trkpt lat="36.042540" lon="-112.120570">
        <ele>2117.111</ele>
        <time>2018-12-28T17:25:36Z</time>
      </trkpt>
      <trkpt lat="36.042450" lon="-112.120620">
        <ele>2116.208</ele>
        <time>2018-12-28T17:25:56Z</time>
      </trkpt>
      <trkpt lat="36.042330" lon="-112.120680">
        <ele>2115.114</ele>
        <time>2018-12-28T17:26:16Z</time>
      </trkpt>
      <trkpt lat="36.042210" lon="-112.120740">
        <ele>2114.032</ele>
        <time>2018-12-28T17:26:36Z</time>
      </trkpt>
      <trkpt lat="36.042130" lon="-112.120790">
        <ele>2113.127</ele>
        <time>2018-12-28T17:26:56Z</time>
      </trkpt>
      <trkpt lat="36.041980" lon="-112.120860">
        <ele>2112.378</ele>
        <time>2018-12-28T17:27:16Z</time>
      </trkpt>
      <trkpt lat="36.041820" lon="-112.120930">
        <ele>2111.853</ele>
        <time>2018-12-28T17:27:36Z</time>
      </trkpt>
      <trkpt lat="36.041650" lon="-112.121000">
        <ele>2111.723</ele>
        <time>2018-12-28T17:27:56Z</time>
      </trkpt>
      <trkpt lat="36.041540" lon="-112.121050">
        <ele>2111.875</ele>
        <time>2018-12-28T17:28:16Z</time>
      </trkpt>
      <trkpt lat="36.041460" lon="-112.121080">
        <ele>2111.919</ele>
        <time>2018-12-28T17:28:36Z</time>
      </trkpt>
      <trkpt lat="36.041360" lon="-112.121110">
        <ele>2112.011</ele>
        <time>2018-12-28T17:28:56Z</time>
      </trkpt>
      <trkpt lat="36.041270" lon="-112.121150">
        <ele>2112.021</ele>
        <time>2018-12-28T17:29:16Z</time>
      </trkpt>
      <trkpt lat="36.041180" lon="-112.121180">
        <ele>2112.003</ele>
        <time>2018-12-28T17:29:36Z</time>
      </trkpt>
      <trkpt lat="36.040950" lon="-112.121280">
        <ele>2111.708</ele>
        <time>2018-12-28T17:29:56Z</time>
      </trkpt>
      <trkpt lat="36.040820" lon="-112.121330">
        <ele>2111.654</ele>
        <time>2018-12-28T17:30:16Z</time>
      </trkpt>
      <trkpt lat="36.040760" lon="-112.121360">
        <ele>2111.632</ele>
        <time>2018-12-28T17:30:36Z</time>
      </trkpt>
      <trkpt lat="36.040690" lon="-112.121380">
        <ele>2111.757</ele>
        <time>2018-12-28T17:30:56Z</time>
      </trkpt>
      <trkpt lat="36.040580" lon="-112.121420">
        <ele>2111.818</ele>
        <time>2018-12-28T17:31:16Z</time>
      </trkpt>
      <trkpt lat="36.040470" lon="-112.121460">
        <ele>2112.023</ele>
        <time>2018-12-28T17:31:36Z</time>
      </trkpt>
      <trkpt lat="36.040250" lon="-112.121520">
        <ele>2111.983</ele>
        <time>2018-12-28T17:31:56Z</time>
      </trkpt>
      <trkpt lat="36.040240" lon="-112.121530">
        <ele>2111.915</ele>
        <time>2018-12-28T17:32:16Z</time>
      </trkpt>
      <trkpt lat="36.040020" lon="-112.121570">
        <ele>2111.769</ele>
        <time>2018-12-28T17:32:36Z</time>
      </trkpt>
      <trkpt lat="36.039520" lon="-112.121670">
        <ele>2112.886</ele>
        <time>2018-12-28T17:32:56Z</time>
      </trkpt>
      <trkpt lat="36.039522" lon="-112.121668">
        <ele>2112.860</ele>
        <time>2018-12-28T17:33:16Z</time>
      </trkpt>
      <trkpt lat="36.039000" lon="-112.121790">
        <ele>2113.726</ele>
        <time>2018-12-28T17:33:36Z</time>
      </trkpt>
      <trkpt lat="36.038580" lon="-112.121880">
        <ele>2113.508</ele>
        <time>2018-12-28T17:33:56Z</time>
      </trkpt>
      <trkpt lat="36.038330" lon="-112.121930">
        <ele>2113.381</ele>
        <time>2018-12-28T17:34:16Z</time>
      </trkpt>
      <trkpt lat="36.038150" lon="-112.121970">
        <ele>2113.119</ele>
        <time>2018-12-28T17:34:36Z</time>
      </trkpt>
      <trkpt lat="36.038070" lon="-112.121980">
        <ele>2113.184</ele>
        <time>2018-12-28T17:34:56Z</time>
      </trkpt>
      <trkpt lat="36.037860" lon="-112.121990">
        <ele>2112.975</ele>
        <time>2018-12-28T17:35:16Z</time>
      </trkpt>
      <trkpt lat="36.037500" lon="-112.122090">
        <ele>2112.560</ele>
        <time>2018-12-28T17:35:36Z</time>
      </trkpt>
      <trkpt lat="36.037260" lon="-112.122150">
        <ele>2112.530</ele>
        <time>2018-12-28T17:35:56Z</time>
      </trkpt>
      <trkpt lat="36.036970" lon="-112.122220">
        <ele>2113.192</ele>
        <time>2018-12-28T17:36:16Z</time>
      </trkpt>
      <trkpt lat="36.036770" lon="-112.122260">
        <ele>2113.596</ele>
        <time>2018-12-28T17:36:36Z</time>
      </trkpt>
      <trkpt lat="36.036570" lon="-112.122300">
        <ele>2113.695</ele>
        <time>2018-12-28T17:36:56Z</time>
      </trkpt>
      <trkpt lat="36.036340" lon="-112.122350">
        <ele>2113.649</ele>
        <time>2018-12-28T17:37:16Z</time>
      </trkpt>
      <trkpt lat="36.035920" lon="-112.122440">
        <ele>2113.423</ele>
        <time>2018-12-28T17:37:36Z</time>
      </trkpt>
      <trkpt lat="36.035630" lon="-112.122510">
        <ele>2113.208</ele>
        <time>2018-12-28T17:37:56Z</time>
      </trkpt>
      <trkpt lat="36.035400" lon="-112.122550">
        <ele>2113.222</ele>
        <time>2018-12-28T17:38:16Z</time>
      </trkpt>
      <trkpt lat="36.035220" lon="-112.122590">
        <ele>2113.060</ele>
        <time>2018-12-28T17:38:36Z</time>
      </trkpt>
      <trkpt lat="36.035060" lon="-112.122620">
        <ele>2112.985</ele>
        <time>2018-12-28T17:38:56Z</time>
      </trkpt>
      <trkpt lat="36.034850" lon="-112.122650">
        <ele>2112.786</ele>
        <time>2018-12-28T17:39:16Z</time>
      </trkpt>
      <trkpt lat="36.034620" lon="-112.122690">
        <ele>2112.391</ele>
        <time>2018-12-28T17:39:36Z</time>
      </trkpt>
      <trkpt lat="36.034290" lon="-112.122750">
        <ele>2111.651</ele>
        <time>2018-12-28T17:39:56Z</time>
      </trkpt>
      <trkpt lat="36.034000" lon="-112.122790">
        <ele>2111.113</ele>
        <time>2018-12-28T17:40:16Z</time>
      </trkpt>
      <trkpt lat="36.033780" lon="-112.122820">
        <ele>2110.967</ele>
        <time>2018-12-28T17:40:36Z</time>
      </trkpt>
      <trkpt lat="36.033560" lon="-112.122850">
        <ele>2110.437</ele>
        <time>2018-12-28T17:40:56Z</time>
      </trkpt>
      <trkpt lat="36.033320" lon="-112.122870">
        <ele>2110.149</ele>
        <time>2018-12-28T17:41:16Z</time>
      </trkpt>
      <trkpt lat="36.033040" lon="-112.122900">
        <ele>2109.813</ele>
        <time>2018-12-28T17:41:36Z</time>
      </trkpt>
      <trkpt lat="36.032520" lon="-112.122950">
        <ele>2107.908</ele>
        <time>2018-12-28T17:41:56Z</time>
      </trkpt>
      <trkpt lat="36.032220" lon="-112.122970">
        <ele>2106.536</ele>
        <time>2018-12-28T17:42:16Z</time>
      </trkpt>
      <trkpt lat="36.032000" lon="-112.122990">
        <ele>2105.424</ele>
        <time>2018-12-28T17:42:36Z</time>
      </trkpt>
      <trkpt lat="36.031670" lon="-112.123010">
        <ele>2103.499</ele>
        <time>2018-12-28T17:42:56Z</time>
      </trkpt>
      <trkpt lat="36.031450" lon="-112.123020">
        <ele>2102.130</ele>
        <time>2018-12-28T17:43:16Z</time>
      </trkpt>
      <trkpt lat="36.031220" lon="-112.123030">
        <ele>2100.865</ele>
        <time>2018-12-28T17:43:36Z</time>
      </trkpt>
      <trkpt lat="36.031120" lon="-112.123030">
        <ele>2100.435</ele>
        <time>2018-12-28T17:43:56Z</time>
      </trkpt>
      <trkpt lat="36.030920" lon="-112.123030">
        <ele>2099.897</ele>
        <time>2018-12-28T17:44:16Z</time>
      </trkpt>
      <trkpt lat="36.030790" lon="-112.123040">
        <ele>2099.791</ele>
        <time>2018-12-28T17:44:36Z</time>
      </trkpt>
      <trkpt lat="36.030600" lon="-112.123040">
        <ele>2100.067</ele>
        <time>2018-12-28T17:44:56Z</time>
      </trkpt>
      <trkpt lat="36.030380" lon="-112.123040">
        <ele>2100.681</ele>
        <time>2018-12-28T17:45:16Z</time>
      </trkpt>
      <trkpt lat="36.030150" lon="-112.123040">
        <ele>2101.119</ele>
        <time>2018-12-28T17:45:36Z</time>
      </trkpt>
      <trkpt lat="36.029820" lon="-112.123040">
        <ele>2101.308</ele>
        <time>2018-12-28T17:45:56Z</time>
      </trkpt>
      <trkpt lat="36.029690" lon="-112.123040">
        <ele>2101.389</ele>
        <time>2018-12-28T17:46:16Z</time>
      </trkpt>
      <trkpt lat="36.029490" lon="-112.123040">
        <ele>2101.247</ele>
        <time>2018-12-28T17:46:36Z</time>
      </trkpt>
      <trkpt lat="36.029220" lon="-112.123040">
        <ele>2101.132</ele>
        <time>2018-12-28T17:46:56Z</time>
      </trkpt>
      <trkpt lat="36.028900" lon="-112.123040">
        <ele>2101.253</ele>
        <time>2018-12-28T17:47:16Z</time>
      </trkpt>
      <trkpt lat="36.028520" lon="-112.123030">
        <ele>2101.478</ele>
        <time>2018-12-28T17:47:36Z</time>
      </trkpt>
      <trkpt lat="36.028270" lon="-112.123030">
        <ele>2101.218</ele>
        <time>2018-12-28T17:47:56Z</time>
      </trkpt>
      <trkpt lat="36.028030" lon="-112.123020">
        <ele>2100.870</ele>
        <time>2018-12-28T17:48:16Z</time>
      </trkpt>
      <trkpt lat="36.027770" lon="-112.123010">
        <ele>2100.464</ele>
        <time>2018-12-28T17:48:36Z</time>
      </trkpt>
      <trkpt lat="36.027520" lon="-112.123000">
        <ele>2100.178</ele>
        <time>2018-12-28T17:48:56Z</time>
      </trkpt>
      <trkpt lat="36.027310" lon="-112.122990">
        <ele>2099.733</ele>
        <time>2018-12-28T17:49:16Z</time>
      </trkpt>
      <trkpt lat="36.026930" lon="-112.122980">
        <ele>2098.926</ele>
        <time>2018-12-28T17:49:36Z</time>
      </trkpt>
      <trkpt lat="36.026530" lon="-112.122960">
        <ele>2098.208</ele>
        <time>2018-12-28T17:49:56Z</time>
      </trkpt>
      <trkpt lat="36.026030" lon="-112.122930">
        <ele>2096.430</ele>
        <time>2018-12-28T17:50:16Z</time>
      </trkpt>
      <trkpt lat="36.025630" lon="-112.122910">
        <ele>2093.888</ele>
        <time>2018-12-28T17:50:36Z</time>
      </trkpt>
      <trkpt lat="36.025290" lon="-112.122900">
        <ele>2090.843</ele>
        <time>2018-12-28T17:50:56Z</time>
      </trkpt>
      <trkpt lat="36.024950" lon="-112.122880">
        <ele>2088.534</ele>
        <time>2018-12-28T17:51:16Z</time>
      </trkpt>
      <trkpt lat="36.024530" lon="-112.122850">
        <ele>2087.269</ele>
        <time>2018-12-28T17:51:36Z</time>
      </trkpt>
      <trkpt lat="36.024290" lon="-112.122830">
        <ele>2086.659</ele>
        <time>2018-12-28T17:51:56Z</time>
      </trkpt>
      <trkpt lat="36.024070" lon="-112.122820">
        <ele>2086.281</ele>
        <time>2018-12-28T17:52:16Z</time>
      </trkpt>
      <trkpt lat="36.023850" lon="-112.122800">
        <ele>2086.545</ele>
        <time>2018-12-28T17:52:36Z</time>
      </trkpt>
      <trkpt lat="36.023570" lon="-112.122780">
        <ele>2086.787</ele>
        <time>2018-12-28T17:52:56Z</time>
      </trkpt>
      <trkpt lat="36.023290" lon="-112.122760">
        <ele>2086.742</ele>
        <time>2018-12-28T17:53:16Z</time>
      </trkpt>
      <trkpt lat="36.022960" lon="-112.122730">
        <ele>2086.626</ele>
        <time>2018-12-28T17:53:36Z</time>
      </trkpt>
      <trkpt lat="36.022750" lon="-112.122710">
        <ele>2086.108</ele>
        <time>2018-12-28T17:53:56Z</time>
      </trkpt>
      <trkpt lat="36.022530" lon="-112.122690">
        <ele>2085.631</ele>
        <time>2018-12-28T17:54:16Z</time>
      </trkpt>
      <trkpt lat="36.022200" lon="-112.122660">
        <ele>2084.989</ele>
        <time>2018-12-28T17:54:36Z</time>
      </trkpt>
      <trkpt lat="36.021870" lon="-112.122620">
        <ele>2084.474</ele>
        <time>2018-12-28T17:54:56Z</time>
      </trkpt>
      <trkpt lat="36.021660" lon="-112.122590">
        <ele>2084.235</ele>
        <time>2018-12-28T17:55:16Z</time>
      </trkpt>
      <trkpt lat="36.021440" lon="-112.122550">
        <ele>2084.240</ele>
        <time>2018-12-28T17:55:36Z</time>
      </trkpt>
      <trkpt lat="36.021220" lon="-112.122510">
        <ele>2084.310</ele>
        <time>2018-12-28T17:55:56Z</time>
      </trkpt>
      <trkpt lat="36.021000" lon="-112.122460">
        <ele>2083.962</ele>
        <time>2018-12-28T17:56:16Z</time>
      </trkpt>
      <trkpt lat="36.020780" lon="-112.122420">
        <ele>2083.686</ele>
        <time>2018-12-28T17:56:36Z</time>
      </trkpt>
      <trkpt lat="36.020610" lon="-112.122370">
        <ele>2083.482</ele>
        <time>2018-12-28T17:56:56Z</time>
      </trkpt>
      <trkpt lat="36.020520" lon="-112.122350">
        <ele>2083.143</ele>
        <time>2018-12-28T17:57:16Z</time>
      </trkpt>
      <trkpt lat="36.020390" lon="-112.122320">
        <ele>2082.817</ele>
        <time>2018-12-28T17:57:36Z</time>
      </trkpt>
      <trkpt lat="36.020300" lon="-112.122290">
        <ele>2082.608</ele>
        <time>2018-12-28T17:57:56Z</time>
      </trkpt>
      <trkpt lat="36.020040" lon="-112.122210">
        <ele>2082.381</ele>
        <time>2018-12-28T17:58:16Z</time>
      </trkpt>
      <trkpt lat="36.019790" lon="-112.122130">
        <ele>2082.489</ele>
        <time>2018-12-28T17:58:36Z</time>
      </trkpt>
      <trkpt lat="36.019660" lon="-112.122090">
        <ele>2082.614</ele>
        <time>2018-12-28T17:58:56Z</time>
      </trkpt>
      <trkpt lat="36.019450" lon="-112.122010">
        <ele>2083.355</ele>
        <time>2018-12-28T17:59:16Z</time>
      </trkpt>
      <trkpt lat="36.019000" lon="-112.121840">
        <ele>2084.060</ele>
        <time>2018-12-28T17:59:36Z</time>
      </trkpt>
      <trkpt lat="36.018710" lon="-112.121720">
        <ele>2083.770</ele>
        <time>2018-12-28T17:59:56Z</time>
      </trkpt>
      <trkpt lat="36.018170" lon="-112.121480">
        <ele>2084.352</ele>
        <time>2018-12-28T18:00:16Z</time>
      </trkpt>
      <trkpt lat="36.017750" lon="-112.121290">
        <ele>2085.456</ele>
        <time>2018-12-28T18:00:36Z</time>
      </trkpt>
      <trkpt lat="36.017550" lon="-112.121210">
        <ele>2085.647</ele>
        <time>2018-12-28T18:00:56Z</time>
      </trkpt>
      <trkpt lat="36.017310" lon="-112.121110">
        <ele>2085.929</ele>
        <time>2018-12-28T18:01:16Z</time>
      </trkpt>
      <trkpt lat="36.017110" lon="-112.121030">
        <ele>2086.521</ele>
        <time>2018-12-28T18:01:36Z</time>
      </trkpt>
      <trkpt lat="36.016890" lon="-112.120950">
        <ele>2086.808</ele>
        <time>2018-12-28T18:01:56Z</time>
      </trkpt>
      <trkpt lat="36.016680" lon="-112.120880">
        <ele>2087.167</ele>
        <time>2018-12-28T18:02:16Z</time>
      </trkpt>
      <trkpt lat="36.016450" lon="-112.120800">
        <ele>2087.445</ele>
        <time>2018-12-28T18:02:36Z</time>
      </trkpt>
      <trkpt lat="36.016150" lon="-112.120720">
        <ele>2087.030</ele>
        <time>2018-12-28T18:02:56Z</time>
      </trkpt>
      <trkpt lat="36.015960" lon="-112.120660">
        <ele>2086.841</ele>
        <time>2018-12-28T18:03:16Z</time>
      </trkpt>
      <trkpt lat="36.015840" lon="-112.120630">
        <ele>2086.966</ele>
        <time>2018-12-28T18:03:36Z</time>
      </trkpt>
      <trkpt lat="36.015700" lon="-112.120600">
        <ele>2086.946</ele>
        <time>2018-12-28T18:03:56Z</time>
      </trkpt>
      <trkpt lat="36.015620" lon="-112.120580">
        <ele>2086.948</ele>
        <time>2018-12-28T18:04:16Z</time>
      </trkpt>
      <trkpt lat="36.015490" lon="-112.120550">
        <ele>2086.742</ele>
        <time>2018-12-28T18:04:36Z</time>
      </trkpt>
      <trkpt lat="36.015290" lon="-112.120510">
        <ele>2086.625</ele>
        <time>2018-12-28T18:04:56Z</time>
      </trkpt>
      <trkpt lat="36.015070" lon="-112.120470">
        <ele>2086.726</ele>
        <time>2018-12-28T18:05:16Z</time>
      </trkpt>
      <trkpt lat="36.014810" lon="-112.120420">
        <ele>2087.008</ele>
        <time>2018-12-28T18:05:36Z</time>
      </trkpt>
      <trkpt lat="36.014450" lon="-112.120370">
        <ele>2086.808</ele>
        <time>2018-12-28T18:05:56Z</time>
      </trkpt>
      <trkpt lat="36.014320" lon="-112.120350">
        <ele>2086.735</ele>
        <time>2018-12-28T18:06:16Z</time>
      </trkpt>
      <trkpt lat="36.014180" lon="-112.120340">
        <ele>2086.743</ele>
        <time>2018-12-28T18:06:36Z</time>
      </trkpt>
      <trkpt lat="36.013800" lon="-112.120310">
        <ele>2086.578</ele>
        <time>2018-12-28T18:06:56Z</time>
      </trkpt>
      <trkpt lat="36.013480" lon="-112.120290">
        <ele>2086.059</ele>
        <time>2018-12-28T18:07:16Z</time>
      </trkpt>
      <trkpt lat="36.013270" lon="-112.120280">
        <ele>2085.434</ele>
        <time>2018-12-28T18:07:36Z</time>
      </trkpt>
      <trkpt lat="36.013120" lon="-112.120270">
        <ele>2084.824</ele>
        <time>2018-12-28T18:07:56Z</time>
      </trkpt>
      <trkpt lat="36.012830" lon="-112.120260">
        <ele>2083.296</ele>
        <time>2018-12-28T18:08:16Z</time>
      </trkpt>
      <trkpt lat="36.012600" lon="-112.120260">
        <ele>2081.940</ele>
        <time>2018-12-28T18:08:36Z</time>
      </trkpt>
      <trkpt lat="36.012310" lon="-112.120260">
        <ele>2080.173</ele>
        <time>2018-12-28T18:08:56Z</time>
      </trkpt>
      <trkpt lat="36.012010" lon="-112.120260">
        <ele>2078.585</ele>
        <time>2018-12-28T18:09:16Z</time>
      </trkpt>
      <trkpt lat="36.011730" lon="-112.120270">
        <ele>2077.113</ele>
        <time>2018-12-28T18:09:36Z</time>
      </trkpt>
      <trkpt lat="36.011440" lon="-112.120280">
        <ele>2075.708</ele>
        <time>2018-12-28T18:09:56Z</time>
      </trkpt>
      <trkpt lat="36.011080" lon="-112.120300">
        <ele>2074.310</ele>
        <time>2018-12-28T18:10:16Z</time>
      </trkpt>
      <trkpt lat="36.010760" lon="-112.120320">
        <ele>2073.018</ele>
        <time>2018-12-28T18:10:36Z</time>
      </trkpt>
      <trkpt lat="36.010620" lon="-112.120330">
        <ele>2072.463</ele>
        <time>2018-12-28T18:10:56Z</time>
      </trkpt>
      <trkpt lat="36.010440" lon="-112.120350">
        <ele>2071.764</ele>
        <time>2018-12-28T18:11:16Z</time>
      </trkpt>
      <trkpt lat="36.010200" lon="-112.120370">
        <ele>2070.559</ele>
        <time>2018-12-28T18:11:36Z</time>
      </trkpt>
      <trkpt lat="36.010000" lon="-112.120390">
        <ele>2069.499</ele>
        <time>2018-12-28T18:11:56Z</time>
      </trkpt>
      <trkpt lat="36.009790" lon="-112.120420">
        <ele>2068.161</ele>
        <time>2018-12-28T18:12:16Z</time>
      </trkpt>
      <trkpt lat="36.009490" lon="-112.120450">
        <ele>2066.065</ele>
        <time>2018-12-28T18:12:36Z</time>
      </trkpt>
      <trkpt lat="36.009230" lon="-112.120490">
        <ele>2064.488</ele>
        <time>2018-12-28T18:12:56Z</time>
      </trkpt>
      <trkpt lat="36.008910" lon="-112.120540">
        <ele>2062.924</ele>
        <time>2018-12-28T18:13:16Z</time>
      </trkpt>
      <trkpt lat="36.008610" lon="-112.120590">
        <ele>2061.926</ele>
        <time>2018-12-28T18:13:36Z</time>
      </trkpt>
      <trkpt lat="36.008410" lon="-112.120630">
        <ele>2061.608</ele>
        <time>2018-12-28T18:13:56Z</time>
      </trkpt>
      <trkpt lat="36.008240" lon="-112.120660">
        <ele>2061.921</ele>
        <time>2018-12-28T18:14:16Z</time>
      </trkpt>
      <trkpt lat="36.007940" lon="-112.120710">
        <ele>2063.379</ele>
        <time>2018-12-28T18:14:36Z</time>
      </trkpt>
      <trkpt lat="36.007730" lon="-112.120750">
        <ele>2064.964</ele>
        <time>2018-12-28T18:14:56Z</time>
      </trkpt>
      <trkpt lat="36.007520" lon="-112.120790">
        <ele>2066.545</ele>
        <time>2018-12-28T18:15:16Z</time>
      </trkpt>
      <trkpt lat="36.007140" lon="-112.120870">
        <ele>2069.490</ele>
        <time>2018-12-28T18:15:36Z</time>
      </trkpt>
      <trkpt lat="36.006800" lon="-112.120930">
        <ele>2071.340</ele>
        <time>2018-12-28T18:15:56Z</time>
      </trkpt>
      <trkpt lat="36.006430" lon="-112.121000">
        <ele>2073.052</ele>
        <time>2018-12-28T18:16:16Z</time>
      </trkpt>
      <trkpt lat="36.006180" lon="-112.121040">
        <ele>2073.516</ele>
        <time>2018-12-28T18:16:36Z</time>
      </trkpt>
      <trkpt lat="36.005890" lon="-112.121090">
        <ele>2073.423</ele>
        <time>2018-12-28T18:16:56Z</time>
      </trkpt>
      <trkpt lat="36.005690" lon="-112.121120">
        <ele>2073.483</ele>
        <time>2018-12-28T18:17:16Z</time>
      </trkpt>
      <trkpt lat="36.005380" lon="-112.121160">
        <ele>2073.111</ele>
        <time>2018-12-28T18:17:36Z</time>
      </trkpt>
      <trkpt lat="36.005210" lon="-112.121180">
        <ele>2073.008</ele>
        <time>2018-12-28T18:17:56Z</time>
      </trkpt>
      <trkpt lat="36.004880" lon="-112.121220">
        <ele>2072.145</ele>
        <time>2018-12-28T18:18:16Z</time>
      </trkpt>
      <trkpt lat="36.004590" lon="-112.121250">
        <ele>2070.953</ele>
        <time>2018-12-28T18:18:36Z</time>
      </trkpt>
      <trkpt lat="36.004310" lon="-112.121270">
        <ele>2069.298</ele>
        <time>2018-12-28T18:18:56Z</time>
      </trkpt>
      <trkpt lat="36.004000" lon="-112.121300">
        <ele>2067.239</ele>
        <time>2018-12-28T18:19:16Z</time>
      </trkpt>
      <trkpt lat="36.003770" lon="-112.121310">
        <ele>2065.844</ele>
        <time>2018-12-28T18:19:36Z</time>
      </trkpt>
      <trkpt lat="36.003470" lon="-112.121320">
        <ele>2064.354</ele>
        <time>2018-12-28T18:19:56Z</time>
      </trkpt>
      <trkpt lat="36.002980" lon="-112.121340">
        <ele>2062.266</ele>
        <time>2018-12-28T18:20:16Z</time>
      </trkpt>
      <trkpt lat="36.002550" lon="-112.121350">
        <ele>2062.080</ele>
        <time>2018-12-28T18:20:36Z</time>
      </trkpt>
      <trkpt lat="36.002160" lon="-112.121360">
        <ele>2062.754</ele>
        <time>2018-12-28T18:20:56Z</time>
      </trkpt>
      <trkpt lat="36.001930" lon="-112.121370">
        <ele>2063.456</ele>
        <time>2018-12-28T18:21:16Z</time>
      </trkpt>
      <trkpt lat="36.001680" lon="-112.121380">
        <ele>2063.811</ele>
        <time>2018-12-28T18:21:36Z</time>
      </trkpt>
      <trkpt lat="36.001580" lon="-112.121420">
        <ele>2063.808</ele>
        <time>2018-12-28T18:21:56Z</time>
      </trkpt>
      <trkpt lat="36.001520" lon="-112.121440">
        <ele>2063.818</ele>
        <time>2018-12-28T18:22:16Z</time>
      </trkpt>
      <trkpt lat="36.001420" lon="-112.121470">
        <ele>2063.796</ele>
        <time>2018-12-28T18:22:36Z</time>
      </trkpt>
      <trkpt lat="36.001320" lon="-112.121510">
        <ele>2063.531</ele>
        <time>2018-12-28T18:22:56Z</time>
      </trkpt>
      <trkpt lat="36.001180" lon="-112.121570">
        <ele>2063.362</ele>
        <time>2018-12-28T18:23:16Z</time>
      </trkpt>
      <trkpt lat="36.001060" lon="-112.121620">
        <ele>2063.137</ele>
        <time>2018-12-28T18:23:36Z</time>
      </trkpt>
      <trkpt lat="36.000940" lon="-112.121670">
        <ele>2063.047</ele>
        <time>2018-12-28T18:23:56Z</time>
      </trkpt>
      <trkpt lat="36.000800" lon="-112.121740">
        <ele>2062.779</ele>
        <time>2018-12-28T18:24:16Z</time>
      </trkpt>
      <trkpt lat="36.000720" lon="-112.121770">
        <ele>2062.663</ele>
        <time>2018-12-28T18:24:36Z</time>
      </trkpt>
      <trkpt lat="36.000620" lon="-112.121810">
        <ele>2062.564</ele>
        <time>2018-12-28T18:24:56Z</time>
      </trkpt>
      <trkpt lat="36.000480" lon="-112.121850">
        <ele>2062.406</ele>
        <time>2018-12-28T18:25:16Z</time>
      </trkpt>
      <trkpt lat="36.000400" lon="-112.121880">
        <ele>2062.416</ele>
        <time>2018-12-28T18:25:36Z</time>
      </trkpt>
      <trkpt lat="36.000340" lon="-112.121890">
        <ele>2062.508</ele>
        <time>2018-12-28T18:25:56Z</time>
      </trkpt>
      <trkpt lat="36.000230" lon="-112.121910">
        <ele>2062.889</ele>
        <time>2018-12-28T18:26:16Z</time>
      </trkpt>
      <trkpt lat="36.000020" lon="-112.121940">
        <ele>2063.497</ele>
        <time>2018-12-28T18:26:36Z</time>
      </trkpt>
      <trkpt lat="35.999880" lon="-112.121950">
        <ele>2063.792</ele>
        <time>2018-12-28T18:26:56Z</time>
      </trkpt>
      <trkpt lat="35.999730" lon="-112.121950">
        <ele>2064.273</ele>
        <time>2018-12-28T18:27:16Z</time>
      </trkpt>
      <trkpt lat="35.999580" lon="-112.121940">
        <ele>2064.698</ele>
        <time>2018-12-28T18:27:36Z</time>
      </trkpt>
      <trkpt lat="35.999440" lon="-112.121930">
        <ele>2064.968</ele>
        <time>2018-12-28T18:27:56Z</time>
      </trkpt>
      <trkpt lat="35.999330" lon="-112.121910">
        <ele>2065.230</ele>
        <time>2018-12-28T18:28:16Z</time>
      </trkpt>
      <trkpt lat="35.999230" lon="-112.121890">
        <ele>2065.484</ele>
        <time>2018-12-28T18:28:36Z</time>
      </trkpt>
      <trkpt lat="35.999070" lon="-112.121860">
        <ele>2065.978</ele>
        <time>2018-12-28T18:28:56Z</time>
      </trkpt>
      <trkpt lat="35.998970" lon="-112.121840">
        <ele>2066.233</ele>
        <time>2018-12-28T18:29:16Z</time>
      </trkpt>
      <trkpt lat="35.998890" lon="-112.121830">
        <ele>2066.526</ele>
        <time>2018-12-28T18:29:36Z</time>
      </trkpt>
      <trkpt lat="35.998830" lon="-112.121830">
        <ele>2066.708</ele>
        <time>2018-12-28T18:29:56Z</time>
      </trkpt>
      <trkpt lat="35.998770" lon="-112.121830">
        <ele>2066.990</ele>
        <time>2018-12-28T18:30:16Z</time>
      </trkpt>
      <trkpt lat="35.998700" lon="-112.121830">
        <ele>2067.078</ele>
        <time>2018-12-28T18:30:36Z</time>
      </trkpt>
      <trkpt lat="35.998630" lon="-112.121830">
        <ele>2067.063</ele>
        <time>2018-12-28T18:30:56Z</time>
      </trkpt>
      <trkpt lat="35.998620" lon="-112.121830">
        <ele>2067.064</ele>
        <time>2018-12-28T18:31:16Z</time>
      </trkpt>
      <trkpt lat="35.998550" lon="-112.121810">
        <ele>2067.139</ele>
        <time>2018-12-28T18:31:36Z</time>
      </trkpt>
      <trkpt lat="35.998060" lon="-112.121910">
        <ele>2067.629</ele>
        <time>2018-12-28T18:31:56Z</time>
      </trkpt>
      <trkpt lat="35.997700" lon="-112.121990">
        <ele>2068.141</ele>
        <time>2018-12-28T18:32:16Z</time>
      </trkpt>
      <trkpt lat="35.996850" lon="-112.122220">
        <ele>2068.945</ele>
        <time>2018-12-28T18:32:36Z</time>
      </trkpt>
      <trkpt lat="35.996670" lon="-112.122270">
        <ele>2068.847</ele>
        <time>2018-12-28T18:32:56Z</time>
      </trkpt>
      <trkpt lat="35.995790" lon="-112.122480">
        <ele>2067.429</ele>
        <time>2018-12-28T18:33:16Z</time>
      </trkpt>
      <trkpt lat="35.995430" lon="-112.122580">
        <ele>2066.521</ele>
        <time>2018-12-28T18:33:36Z</time>
      </trkpt>
      <trkpt lat="35.994440" lon="-112.122820">
        <ele>2062.508</ele>
        <time>2018-12-28T18:33:56Z</time>
      </trkpt>
      <trkpt lat="35.994240" lon="-112.122860">
        <ele>2061.357</ele>
        <time>2018-12-28T18:34:16Z</time>
      </trkpt>
      <trkpt lat="35.994070" lon="-112.122900">
        <ele>2060.425</ele>
        <time>2018-12-28T18:34:36Z</time>
      </trkpt>
      <trkpt lat="35.993840" lon="-112.122950">
        <ele>2059.060</ele>
        <time>2018-12-28T18:34:56Z</time>
      </trkpt>
      <trkpt lat="35.993560" lon="-112.123000">
        <ele>2058.021</ele>
        <time>2018-12-28T18:35:16Z</time>
      </trkpt>
      <trkpt lat="35.993250" lon="-112.123050">
        <ele>2056.176</ele>
        <time>2018-12-28T18:35:36Z</time>
      </trkpt>
      <trkpt lat="35.992920" lon="-112.123100">
        <ele>2055.086</ele>
        <time>2018-12-28T18:35:56Z</time>
      </trkpt>
      <trkpt lat="35.992630" lon="-112.123140">
        <ele>2052.358</ele>
        <time>2018-12-28T18:36:16Z</time>
      </trkpt>
      <trkpt lat="35.992330" lon="-112.123180">
        <ele>2049.522</ele>
        <time>2018-12-28T18:36:36Z</time>
      </trkpt>
      <trkpt lat="35.991940" lon="-112.123220">
        <ele>2046.955</ele>
        <time>2018-12-28T18:36:56Z</time>
      </trkpt>
      <trkpt lat="35.991880" lon="-112.123260">
        <ele>2046.507</ele>
        <time>2018-12-28T18:37:16Z</time>
      </trkpt>
      <trkpt lat="35.991850" lon="-112.123270">
        <ele>2046.317</ele>
        <time>2018-12-28T18:37:36Z</time>
      </trkpt>
      <trkpt lat="35.991820" lon="-112.123280">
        <ele>2046.208</ele>
        <time>2018-12-28T18:37:56Z</time>
      </trkpt>
      <trkpt lat="35.991780" lon="-112.123280">
        <ele>2046.118</ele>
        <time>2018-12-28T18:38:16Z</time>
      </trkpt>
      <trkpt lat="35.991450" lon="-112.123320">
        <ele>2045.056</ele>
        <time>2018-12-28T18:38:36Z</time>
      </trkpt>
      <trkpt lat="35.991170" lon="-112.123350">
        <ele>2044.111</ele>
        <time>2018-12-28T18:38:56Z</time>
      </trkpt>
      <trkpt lat="35.990720" lon="-112.123390">
        <ele>2043.782</ele>
        <time>2018-12-28T18:39:16Z</time>
      </trkpt>
      <trkpt lat="35.990610" lon="-112.123400">
        <ele>2043.427</ele>
        <time>2018-12-28T18:39:36Z</time>
      </trkpt>
      <trkpt lat="35.990250" lon="-112.123410">
        <ele>2042.577</ele>
        <time>2018-12-28T18:39:56Z</time>
      </trkpt>
      <trkpt lat="35.989920" lon="-112.123420">
        <ele>2041.549</ele>
        <time>2018-12-28T18:40:16Z</time>
      </trkpt>
      <trkpt lat="35.989550" lon="-112.123420">
        <ele>2040.423</ele>
        <time>2018-12-28T18:40:36Z</time>
      </trkpt>
      <trkpt lat="35.989200" lon="-112.123420">
        <ele>2039.328</ele>
        <time>2018-12-28T18:40:56Z</time>
      </trkpt>
      <trkpt lat="35.988840" lon="-112.123420">
        <ele>2038.089</ele>
        <time>2018-12-28T18:41:16Z</time>
      </trkpt>
      <trkpt lat="35.988530" lon="-112.123400">
        <ele>2037.517</ele>
        <time>2018-12-28T18:41:36Z</time>
      </trkpt>
      <trkpt lat="35.988230" lon="-112.123390">
        <ele>2037.108</ele>
        <time>2018-12-28T18:41:56Z</time>
      </trkpt>
      <trkpt lat="35.988020" lon="-112.123370">
        <ele>2037.065</ele>
        <time>2018-12-28T18:42:16Z</time>
      </trkpt>
      <trkpt lat="35.987840" lon="-112.123360">
        <ele>2036.563</ele>
        <time>2018-12-28T18:42:36Z</time>
      </trkpt>
      <trkpt lat="35.987240" lon="-112.123310">
        <ele>2034.628</ele>
        <time>2018-12-28T18:42:56Z</time>
      </trkpt>
      <trkpt lat="35.986300" lon="-112.123250">
        <ele>2031.919</ele>
        <time>2018-12-28T18:43:16Z</time>
      </trkpt>
      <trkpt lat="35.985910" lon="-112.123230">
        <ele>2031.244</ele>
        <time>2018-12-28T18:43:36Z</time>
      </trkpt>
      <trkpt lat="35.985840" lon="-112.123220">
        <ele>2031.264</ele>
        <time>2018-12-28T18:43:56Z</time>
      </trkpt>
      <trkpt lat="35.985810" lon="-112.123220">
        <ele>2031.146</ele>
        <time>2018-12-28T18:44:16Z</time>
      </trkpt>
      <trkpt lat="35.985780" lon="-112.123220">
        <ele>2031.160</ele>
        <time>2018-12-28T18:44:36Z</time>
      </trkpt>
      <trkpt lat="35.985720" lon="-112.123200">
        <ele>2031.252</ele>
        <time>2018-12-28T18:44:56Z</time>
      </trkpt>
      <trkpt lat="35.985580" lon="-112.123200">
        <ele>2030.853</ele>
        <time>2018-12-28T18:45:16Z</time>
      </trkpt>
      <trkpt lat="35.985020" lon="-112.123210">
        <ele>2027.908</ele>
        <time>2018-12-28T18:45:36Z</time>
      </trkpt>
      <trkpt lat="35.984440" lon="-112.123240">
        <ele>2027.908</ele>
        <time>2018-12-28T18:45:56Z</time>
      </trkpt>
      <trkpt lat="35.984210" lon="-112.123250">
        <ele>2028.368</ele>
        <time>2018-12-28T18:46:16Z</time>
      </trkpt>
      <trkpt lat="35.983970" lon="-112.123270">
        <ele>2028.926</ele>
        <time>2018-12-28T18:46:36Z</time>
      </trkpt>
      <trkpt lat="35.982860" lon="-112.123370">
        <ele>2033.251</ele>
        <time>2018-12-28T18:46:56Z</time>
      </trkpt>
      <trkpt lat="35.982210" lon="-112.123480">
        <ele>2033.532</ele>
        <time>2018-12-28T18:47:16Z</time>
      </trkpt>
      <trkpt lat="35.981980" lon="-112.123520">
        <ele>2033.557</ele>
        <time>2018-12-28T18:47:36Z</time>
      </trkpt>
      <trkpt lat="35.981880" lon="-112.123560">
        <ele>2033.527</ele>
        <time>2018-12-28T18:47:56Z</time>
      </trkpt>
      <trkpt lat="35.981860" lon="-112.123560">
        <ele>2033.569</ele>
        <time>2018-12-28T18:48:16Z</time>
      </trkpt>
      <trkpt lat="35.981840" lon="-112.123570">
        <ele>2033.433</ele>
        <time>2018-12-28T18:48:36Z</time>
      </trkpt>
      <trkpt lat="35.981770" lon="-112.123580">
        <ele>2033.414</ele>
        <time>2018-12-28T18:48:56Z</time>
      </trkpt>
      <trkpt lat="35.981490" lon="-112.123640">
        <ele>2033.354</ele>
        <time>2018-12-28T18:49:16Z</time>
      </trkpt>
      <trkpt lat="35.981170" lon="-112.123700">
        <ele>2032.909</ele>
        <time>2018-12-28T18:49:36Z</time>
      </trkpt>
      <trkpt lat="35.980870" lon="-112.123760">
        <ele>2031.908</ele>
        <time>2018-12-28T18:49:56Z</time>
      </trkpt>
      <trkpt lat="35.980540" lon="-112.123830">
        <ele>2031.084</ele>
        <time>2018-12-28T18:50:16Z</time>
      </trkpt>
      <trkpt lat="35.980140" lon="-112.123930">
        <ele>2029.692</ele>
        <time>2018-12-28T18:50:36Z</time>
      </trkpt>
      <trkpt lat="35.980010" lon="-112.123960">
        <ele>2029.287</ele>
        <time>2018-12-28T18:50:56Z</time>
      </trkpt>
      <trkpt lat="35.979680" lon="-112.124040">
        <ele>2028.418</ele>
        <time>2018-12-28T18:51:16Z</time>
      </trkpt>
      <trkpt lat="35.979100" lon="-112.124200">
        <ele>2026.153</ele>
        <time>2018-12-28T18:51:36Z</time>
      </trkpt>
      <trkpt lat="35.978810" lon="-112.124270">
        <ele>2025.093</ele>
        <time>2018-12-28T18:51:56Z</time>
      </trkpt>
      <trkpt lat="35.978660" lon="-112.124320">
        <ele>2024.435</ele>
        <time>2018-12-28T18:52:16Z</time>
      </trkpt>
      <trkpt lat="35.978130" lon="-112.124480">
        <ele>2021.989</ele>
        <time>2018-12-28T18:52:36Z</time>
      </trkpt>
      <trkpt lat="35.977790" lon="-112.124590">
        <ele>2020.571</ele>
        <time>2018-12-28T18:52:56Z</time>
      </trkpt>
      <trkpt lat="35.977590" lon="-112.124650">
        <ele>2019.641</ele>
        <time>2018-12-28T18:53:16Z</time>
      </trkpt>
      <trkpt lat="35.977480" lon="-112.124690">
        <ele>2019.315</ele>
        <time>2018-12-28T18:53:36Z</time>
      </trkpt>
      <trkpt lat="35.977290" lon="-112.124740">
        <ele>2018.308</ele>
        <time>2018-12-28T18:53:56Z</time>
      </trkpt>
      <trkpt lat="35.977180" lon="-112.124770">
        <ele>2017.710</ele>
        <time>2018-12-28T18:54:16Z</time>
      </trkpt>
      <trkpt lat="35.977150" lon="-112.124780">
        <ele>2017.568</ele>
        <time>2018-12-28T18:54:36Z</time>
      </trkpt>
      <trkpt lat="35.977130" lon="-112.124790">
        <ele>2017.453</ele>
        <time>2018-12-28T18:54:56Z</time>
      </trkpt>
      <trkpt lat="35.977110" lon="-112.124800">
        <ele>2017.364</ele>
        <time>2018-12-28T18:55:16Z</time>
      </trkpt>
      <trkpt lat="35.977090" lon="-112.124810">
        <ele>2017.239</ele>
        <time>2018-12-28T18:55:36Z</time>
      </trkpt>
      <trkpt lat="35.977080" lon="-112.124830">
        <ele>2017.179</ele>
        <time>2018-12-28T18:55:56Z</time>
      </trkpt>
      <trkpt lat="35.977060" lon="-112.124850">
        <ele>2017.191</ele>
        <time>2018-12-28T18:56:16Z</time>
      </trkpt>
      <trkpt lat="35.977040" lon="-112.124860">
        <ele>2017.095</ele>
        <time>2018-12-28T18:56:36Z</time>
      </trkpt>
      <trkpt lat="35.977020" lon="-112.124880">
        <ele>2017.032</ele>
        <time>2018-12-28T18:56:56Z</time>
      </trkpt>
      <trkpt lat="35.977000" lon="-112.124900">
        <ele>2017.092</ele>
        <time>2018-12-28T18:57:16Z</time>
      </trkpt>
      <trkpt lat="35.976920" lon="-112.125000">
        <ele>2016.811</ele>
        <time>2018-12-28T18:57:36Z</time>
      </trkpt>
      <trkpt lat="35.976923" lon="-112.125000">
        <ele>2016.808</ele>
        <time>2018-12-28T18:57:56Z</time>
      </trkpt>
      <trkpt lat="35.976930" lon="-112.125020">
        <ele>2016.946</ele>
        <time>2018-12-28T18:58:16Z</time>
      </trkpt>
      <trkpt lat="35.976930" lon="-112.125050">
        <ele>2016.914</ele>
        <time>2018-12-28T18:58:36Z</time>
      </trkpt>
      <trkpt lat="35.976920" lon="-112.125070">
        <ele>2016.839</ele>
        <time>2018-12-28T18:58:56Z</time>
      </trkpt>
      <trkpt lat="35.976920" lon="-112.125090">
        <ele>2016.970</ele>
        <time>2018-12-28T18:59:16Z</time>
      </trkpt>
      <trkpt lat="35.976910" lon="-112.125110">
        <ele>2016.865</ele>
        <time>2018-12-28T18:59:36Z</time>
      </trkpt>
      <trkpt lat="35.976910" lon="-112.125140">
        <ele>2016.935</ele>
        <time>2018-12-28T18:59:56Z</time>
      </trkpt>
      <trkpt lat="35.976900" lon="-112.125160">
        <ele>2017.087</ele>
        <time>2018-12-28T19:00:16Z</time>
      </trkpt>
      <trkpt lat="35.976890" lon="-112.125180">
        <ele>2017.081</ele>
        <time>2018-12-28T19:00:36Z</time>
      </trkpt>
      <trkpt lat="35.976880" lon="-112.125190">
        <ele>2017.115</ele>
        <time>2018-12-28T19:00:56Z</time>
      </trkpt>
      <trkpt lat="35.976860" lon="-112.125210">
        <ele>2017.265</ele>
        <time>2018-12-28T19:01:16Z</time>
      </trkpt>
      <trkpt lat="35.976850" lon="-112.125230">
        <ele>2017.311</ele>
        <time>2018-12-28T19:01:36Z</time>
      </trkpt>
      <trkpt lat="35.976830" lon="-112.125240">
        <ele>2017.308</ele>
        <time>2018-12-28T19:01:56Z</time>
      </trkpt>
      <trkpt lat="35.976820" lon="-112.125250">
        <ele>2017.324</ele>
        <time>2018-12-28T19:02:16Z</time>
      </trkpt>
      <trkpt lat="35.976800" lon="-112.125260">
        <ele>2017.342</ele>
        <time>2018-12-28T19:02:36Z</time>
      </trkpt>
      <trkpt lat="35.976780" lon="-112.125270">
        <ele>2017.397</ele>
        <time>2018-12-28T19:02:56Z</time>
      </trkpt>
      <trkpt lat="35.976760" lon="-112.125280">
        <ele>2017.398</ele>
        <time>2018-12-28T19:03:16Z</time>
      </trkpt>
      <trkpt lat="35.976740" lon="-112.125280">
        <ele>2017.283</ele>
        <time>2018-12-28T19:03:36Z</time>
      </trkpt>
      <trkpt lat="35.976720" lon="-112.125280">
        <ele>2017.253</ele>
        <time>2018-12-28T19:03:56Z</time>
      </trkpt>
      <trkpt lat="35.976700" lon="-112.125280">
        <ele>2017.155</ele>
        <time>2018-12-28T19:04:16Z</time>
      </trkpt>
      <trkpt lat="35.976680" lon="-112.125280">
        <ele>2017.049</ele>
        <time>2018-12-28T19:04:36Z</time>
      </trkpt>
      <trkpt lat="35.976670" lon="-112.125280">
        <ele>2017.059</ele>
        <time>2018-12-28T19:04:56Z</time>
      </trkpt>
      <trkpt lat="35.976630" lon="-112.125270">
        <ele>2016.803</ele>
        <time>2018-12-28T19:05:16Z</time>
      </trkpt>
      <trkpt lat="35.976520" lon="-112.125260">
        <ele>2016.323</ele>
        <time>2018-12-28T19:05:36Z</time>
      </trkpt>
      <trkpt lat="35.976470" lon="-112.125260">
        <ele>2016.008</ele>
        <time>2018-12-28T19:05:56Z</time>
      </trkpt>
      <trkpt lat="35.976400" lon="-112.125260">
        <ele>2015.668</ele>
        <time>2018-12-28T19:06:16Z</time>
      </trkpt>
      <trkpt lat="35.976330" lon="-112.125270">
        <ele>2015.236</ele>
        <time>2018-12-28T19:06:36Z</time>
      </trkpt>
      <trkpt lat="35.976280" lon="-112.125280">
        <ele>2015.051</ele>
        <time>2018-12-28T19:06:56Z</time>
      </trkpt>
      <trkpt lat="35.976240" lon="-112.125280">
        <ele>2014.832</ele>
        <time>2018-12-28T19:07:16Z</time>
      </trkpt>
      <trkpt lat="35.976190" lon="-112.125290">
        <ele>2014.587</ele>
        <time>2018-12-28T19:07:36Z</time>
      </trkpt>
      <trkpt lat="35.976030" lon="-112.125330">
        <ele>2013.467</ele>
        <time>2018-12-28T19:07:56Z</time>
      </trkpt>
      <trkpt lat="35.975920" lon="-112.125350">
        <ele>2012.929</ele>
        <time>2018-12-28T19:08:16Z</time>
      </trkpt>
      <trkpt lat="35.975840" lon="-112.125370">
        <ele>2012.983</ele>
        <time>2018-12-28T19:08:36Z</time>
      </trkpt>
      <trkpt lat="35.975560" lon="-112.125440">
        <ele>2012.785</ele>
        <time>2018-12-28T19:08:56Z</time>
      </trkpt>
      <trkpt lat="35.975440" lon="-112.125490">
        <ele>2012.589</ele>
        <time>2018-12-28T19:09:16Z</time>
      </trkpt>
      <trkpt lat="35.975310" lon="-112.125540">
        <ele>2012.217</ele>
        <time>2018-12-28T19:09:36Z</time>
      </trkpt>
      <trkpt lat="35.975190" lon="-112.125600">
        <ele>2011.908</ele>
        <time>2018-12-28T19:09:56Z</time>
      </trkpt>
      <trkpt lat="35.975130" lon="-112.125630">
        <ele>2011.881</ele>
        <time>2018-12-28T19:10:16Z</time>
      </trkpt>
      <trkpt lat="35.974850" lon="-112.125750">
        <ele>2011.239</ele>
        <time>2018-12-28T19:10:36Z</time>
      </trkpt>
      <trkpt lat="35.974580" lon="-112.125900">
        <ele>2010.754</ele>
        <time>2018-12-28T19:10:56Z</time>
      </trkpt>
      <trkpt lat="35.974280" lon="-112.126020">
        <ele>2010.375</ele>
        <time>2018-12-28T19:11:16Z</time>
      </trkpt>
      <trkpt lat="35.974230" lon="-112.126050">
        <ele>2010.230</ele>
        <time>2018-12-28T19:11:36Z</time>
      </trkpt>
      <trkpt lat="35.973940" lon="-112.126190">
        <ele>2010.020</ele>
        <time>2018-12-28T19:11:56Z</time>
      </trkpt>
      <trkpt lat="35.973820" lon="-112.126240">
        <ele>2010.072</ele>
        <time>2018-12-28T19:12:16Z</time>
      </trkpt>
      <trkpt lat="35.973650" lon="-112.126250">
        <ele>2009.886</ele>
        <time>2018-12-28T19:12:36Z</time>
      </trkpt>
      <trkpt lat="35.973460" lon="-112.126340">
        <ele>2009.754</ele>
        <time>2018-12-28T19:12:56Z</time>
      </trkpt>
      <trkpt lat="35.973000" lon="-112.126560">
        <ele>2009.256</ele>
        <time>2018-12-28T19:13:16Z</time>
      </trkpt>
      <trkpt lat="35.972670" lon="-112.126720">
        <ele>2009.611</ele>
        <time>2018-12-28T19:13:36Z</time>
      </trkpt>
      <trkpt lat="35.972380" lon="-112.126850">
        <ele>2009.608</ele>
        <time>2018-12-28T19:13:56Z</time>
      </trkpt>
      <trkpt lat="35.972110" lon="-112.126980">
        <ele>2009.448</ele>
        <time>2018-12-28T19:14:16Z</time>
      </trkpt>
      <trkpt lat="35.971480" lon="-112.127280">
        <ele>2008.186</ele>
        <time>2018-12-28T19:14:36Z</time>
      </trkpt>
      <trkpt lat="35.971370" lon="-112.127420">
        <ele>2007.871</ele>
        <time>2018-12-28T19:14:56Z</time>
      </trkpt>
      <trkpt lat="35.971240" lon="-112.127480">
        <ele>2007.862</ele>
        <time>2018-12-28T19:15:16Z</time>
      </trkpt>
      <trkpt lat="35.971000" lon="-112.127600">
        <ele>2007.717</ele>
        <time>2018-12-28T19:15:36Z</time>
      </trkpt>
      <trkpt lat="35.970870" lon="-112.127660">
        <ele>2007.627</ele>
        <time>2018-12-28T19:15:56Z</time>
      </trkpt>
      <trkpt lat="35.970410" lon="-112.127900">
        <ele>2007.489</ele>
        <time>2018-12-28T19:16:16Z</time>
      </trkpt>
      <trkpt lat="35.970220" lon="-112.127980">
        <ele>2007.493</ele>
        <time>2018-12-28T19:16:36Z</time>
      </trkpt>
      <trkpt lat="35.970050" lon="-112.128050">
        <ele>2007.517</ele>
        <time>2018-12-28T19:16:56Z</time>
      </trkpt>
      <trkpt lat="35.969500" lon="-112.128350">
        <ele>2008.487</ele>
        <time>2018-12-28T19:17:16Z</time>
      </trkpt>
      <trkpt lat="35.968790" lon="-112.128630">
        <ele>2009.115</ele>
        <time>2018-12-28T19:17:36Z</time>
      </trkpt>
      <trkpt lat="35.968430" lon="-112.128740">
        <ele>2009.708</ele>
        <time>2018-12-28T19:17:56Z</time>
      </trkpt>
      <trkpt lat="35.968390" lon="-112.128760">
        <ele>2009.874</ele>
        <time>2018-12-28T19:18:16Z</time>
      </trkpt>
      <trkpt lat="35.968360" lon="-112.128780">
        <ele>2009.812</ele>
        <time>2018-12-28T19:18:36Z</time>
      </trkpt>
      <trkpt lat="35.968340" lon="-112.128790">
        <ele>2009.927</ele>
        <time>2018-12-28T19:18:56Z</time>
      </trkpt>
      <trkpt lat="35.968330" lon="-112.128800">
        <ele>2009.928</ele>
        <time>2018-12-28T19:19:16Z</time>
      </trkpt>
      <trkpt lat="35.968310" lon="-112.128820">
        <ele>2009.943</ele>
        <time>2018-12-28T19:19:36Z</time>
      </trkpt>
      <trkpt lat="35.968300" lon="-112.128830">
        <ele>2009.943</ele>
        <time>2018-12-28T19:19:56Z</time>
      </trkpt>
      <trkpt lat="35.968270" lon="-112.128870">
        <ele>2009.945</ele>
        <time>2018-12-28T19:20:16Z</time>
      </trkpt>
      <trkpt lat="35.968200" lon="-112.128980">
        <ele>2010.049</ele>
        <time>2018-12-28T19:20:36Z</time>
      </trkpt>
      <trkpt lat="35.968200" lon="-112.128979">
        <ele>2010.033</ele>
        <time>2018-12-28T19:20:56Z</time>
      </trkpt>
      <trkpt lat="35.968200" lon="-112.128990">
        <ele>2010.023</ele>
        <time>2018-12-28T19:21:16Z</time>
      </trkpt>
      <trkpt lat="35.968200" lon="-112.129000">
        <ele>2010.015</ele>
        <time>2018-12-28T19:21:36Z</time>
      </trkpt>
      <trkpt lat="35.968200" lon="-112.129010">
        <ele>2009.908</ele>
        <time>2018-12-28T19:21:56Z</time>
      </trkpt>
      <trkpt lat="35.968200" lon="-112.129020">
        <ele>2009.936</ele>
        <time>2018-12-28T19:22:16Z</time>
      </trkpt>
      <trkpt lat="35.968200" lon="-112.129040">
        <ele>2009.984</ele>
        <time>2018-12-28T19:22:36Z</time>
      </trkpt>
      <trkpt lat="35.968200" lon="-112.129050">
        <ele>2009.869</ele>
        <time>2018-12-28T19:22:56Z</time>
      </trkpt>
      <trkpt lat="35.968190" lon="-112.129060">
        <ele>2009.810</ele>
        <time>2018-12-28T19:23:16Z</time>
      </trkpt>
      <trkpt lat="35.968190" lon="-112.129070">
        <ele>2009.865</ele>
        <time>2018-12-28T19:23:36Z</time>
      </trkpt>
      <trkpt lat="35.968180" lon="-112.129100">
        <ele>2009.745</ele>
        <time>2018-12-28T19:23:56Z</time>
      </trkpt>
      <trkpt lat="35.968170" lon="-112.129120">
        <ele>2009.797</ele>
        <time>2018-12-28T19:24:16Z</time>
      </trkpt>
      <trkpt lat="35.968160" lon="-112.129140">
        <ele>2009.661</ele>
        <time>2018-12-28T19:24:36Z</time>
      </trkpt>
      <trkpt lat="35.968140" lon="-112.129160">
        <ele>2009.676</ele>
        <time>2018-12-28T19:24:56Z</time>
      </trkpt>
      <trkpt lat="35.968130" lon="-112.129180">
        <ele>2009.690</ele>
        <time>2018-12-28T19:25:16Z</time>
      </trkpt>
      <trkpt lat="35.968110" lon="-112.129190">
        <ele>2009.619</ele>
        <time>2018-12-28T19:25:36Z</time>
      </trkpt>
      <trkpt lat="35.968100" lon="-112.129200">
        <ele>2009.608</ele>
        <time>2018-12-28T19:25:56Z</time>
      </trkpt>
      <trkpt lat="35.968080" lon="-112.129220">
        <ele>2009.660</ele>
        <time>2018-12-28T19:26:16Z</time>
      </trkpt>
      <trkpt lat="35.968060" lon="-112.129220">
        <ele>2009.688</ele>
        <time>2018-12-28T19:26:36Z</time>
      </trkpt>
      <trkpt lat="35.968040" lon="-112.129230">
        <ele>2009.713</ele>
        <time>2018-12-28T19:26:56Z</time>
      </trkpt>
      <trkpt lat="35.968020" lon="-112.129240">
        <ele>2009.724</ele>
        <time>2018-12-28T19:27:16Z</time>
      </trkpt>
      <trkpt lat="35.968010" lon="-112.129240">
        <ele>2009.719</ele>
        <time>2018-12-28T19:27:36Z</time>
      </trkpt>
      <trkpt lat="35.968000" lon="-112.129240">
        <ele>2009.789</ele>
        <time>2018-12-28T19:27:56Z</time>
      </trkpt>
      <trkpt lat="35.967990" lon="-112.129240">
        <ele>2009.841</ele>
        <time>2018-12-28T19:28:16Z</time>
      </trkpt>
      <trkpt lat="35.967980" lon="-112.129240">
        <ele>2009.865</ele>
        <time>2018-12-28T19:28:36Z</time>
      </trkpt>
      <trkpt lat="35.967970" lon="-112.129240">
        <ele>2009.839</ele>
        <time>2018-12-28T19:28:56Z</time>
      </trkpt>
      <trkpt lat="35.967960" lon="-112.129230">
        <ele>2009.901</ele>
        <time>2018-12-28T19:29:16Z</time>
      </trkpt>
      <trkpt lat="35.967950" lon="-112.129230">
        <ele>2009.921</ele>
        <time>2018-12-28T19:29:36Z</time>
      </trkpt>
      <trkpt lat="35.967930" lon="-112.129230">
        <ele>2010.008</ele>
        <time>2018-12-28T19:29:56Z</time>
      </trkpt>
      <trkpt lat="35.967590" lon="-112.129270">
        <ele>2011.736</ele>
        <time>2018-12-28T19:30:16Z</time>
      </trkpt>
      <trkpt lat="35.967480" lon="-112.129290">
        <ele>2012.544</ele>
        <time>2018-12-28T19:30:36Z</time>
      </trkpt>
      <trkpt lat="35.967410" lon="-112.129310">
        <ele>2013.129</ele>
        <time>2018-12-28T19:30:56Z</time>
      </trkpt>
      <trkpt lat="35.967290" lon="-112.129350">
        <ele>2013.530</ele>
        <time>2018-12-28T19:31:16Z</time>
      </trkpt>
      <trkpt lat="35.967120" lon="-112.129420">
        <ele>2013.625</ele>
        <time>2018-12-28T19:31:36Z</time>
      </trkpt>
      <trkpt lat="35.966980" lon="-112.129480">
        <ele>2014.015</ele>
        <time>2018-12-28T19:31:56Z</time>
      </trkpt>
      <trkpt lat="35.966880" lon="-112.129530">
        <ele>2014.227</ele>
        <time>2018-12-28T19:32:16Z</time>
      </trkpt>
      <trkpt lat="35.966750" lon="-112.129590">
        <ele>2014.681</ele>
        <time>2018-12-28T19:32:36Z</time>
      </trkpt>
      <trkpt lat="35.966580" lon="-112.129670">
        <ele>2015.371</ele>
        <time>2018-12-28T19:32:56Z</time>
      </trkpt>
      <trkpt lat="35.966470" lon="-112.129730">
        <ele>2015.741</ele>
        <time>2018-12-28T19:33:16Z</time>
      </trkpt>
      <trkpt lat="35.966360" lon="-112.129780">
        <ele>2015.815</ele>
        <time>2018-12-28T19:33:36Z</time>
      </trkpt>
      <trkpt lat="35.966240" lon="-112.129840">
        <ele>2015.808</ele>
        <time>2018-12-28T19:33:56Z</time>
      </trkpt>
      <trkpt lat="35.966070" lon="-112.129920">
        <ele>2016.580</ele>
        <time>2018-12-28T19:34:16Z</time>
      </trkpt>
      <trkpt lat="35.965890" lon="-112.130010">
        <ele>2017.138</ele>
        <time>2018-12-28T19:34:36Z</time>
      </trkpt>
      <trkpt lat="35.965770" lon="-112.130070">
        <ele>2017.363</ele>
        <time>2018-12-28T19:34:56Z</time>
      </trkpt>
      <trkpt lat="35.965580" lon="-112.130170">
        <ele>2017.344</ele>
        <time>2018-12-28T19:35:16Z</time>
      </trkpt>
      <trkpt lat="35.965390" lon="-112.130270">
        <ele>2017.119</ele>
        <time>2018-12-28T19:35:36Z</time>
      </trkpt>
      <trkpt lat="35.964920" lon="-112.130520">
        <ele>2018.089</ele>
        <time>2018-12-28T19:35:56Z</time>
      </trkpt>
      <trkpt lat="35.964810" lon="-112.130560">
        <ele>2018.351</ele>
        <time>2018-12-28T19:36:16Z</time>
      </trkpt>
      <trkpt lat="35.964390" lon="-112.130730">
        <ele>2021.225</ele>
        <time>2018-12-28T19:36:36Z</time>
      </trkpt>
      <trkpt lat="35.964200" lon="-112.130800">
        <ele>2022.276</ele>
        <time>2018-12-28T19:36:56Z</time>
      </trkpt>
      <trkpt lat="35.964000" lon="-112.130870">
        <ele>2022.890</ele>
        <time>2018-12-28T19:37:16Z</time>
      </trkpt>
      <trkpt lat="35.963830" lon="-112.130940">
        <ele>2023.519</ele>
        <time>2018-12-28T19:37:36Z</time>
      </trkpt>
      <trkpt lat="35.963640" lon="-112.130990">
        <ele>2024.608</ele>
        <time>2018-12-28T19:37:56Z</time>
      </trkpt>
      <trkpt lat="35.963390" lon="-112.131060">
        <ele>2025.710</ele>
        <time>2018-12-28T19:38:16Z</time>
      </trkpt>
      <trkpt lat="35.963220" lon="-112.131080">
        <ele>2026.398</ele>
        <time>2018-12-28T19:38:36Z</time>
      </trkpt>
      <trkpt lat="35.962830" lon="-112.131190">
        <ele>2029.023</ele>
        <time>2018-12-28T19:38:56Z</time>
      </trkpt>
      <trkpt lat="35.962590" lon="-112.131260">
        <ele>2030.364</ele>
        <time>2018-12-28T19:39:16Z</time>
      </trkpt>
      <trkpt lat="35.962410" lon="-112.131310">
        <ele>2030.279</ele>
        <time>2018-12-28T19:39:36Z</time>
      </trkpt>
      <trkpt lat="35.962060" lon="-112.131410">
        <ele>2029.649</ele>
        <time>2018-12-28T19:39:56Z</time>
      </trkpt>
      <trkpt lat="35.961540" lon="-112.131530">
        <ele>2031.751</ele>
        <time>2018-12-28T19:40:16Z</time>
      </trkpt>
      <trkpt lat="35.961260" lon="-112.131580">
        <ele>2032.935</ele>
        <time>2018-12-28T19:40:36Z</time>
      </trkpt>
      <trkpt lat="35.961050" lon="-112.131620">
        <ele>2033.333</ele>
        <time>2018-12-28T19:40:56Z</time>
      </trkpt>
      <trkpt lat="35.960710" lon="-112.131680">
        <ele>2034.123</ele>
        <time>2018-12-28T19:41:16Z</time>
      </trkpt>
      <trkpt lat="35.960380" lon="-112.131730">
        <ele>2034.015</ele>
        <time>2018-12-28T19:41:36Z</time>
      </trkpt>
      <trkpt lat="35.960080" lon="-112.131770">
        <ele>2033.108</ele>
        <time>2018-12-28T19:41:56Z</time>
      </trkpt>
      <trkpt lat="35.959800" lon="-112.131810">
        <ele>2031.896</ele>
        <time>2018-12-28T19:42:16Z</time>
      </trkpt>
      <trkpt lat="35.959410" lon="-112.131850">
        <ele>2029.934</ele>
        <time>2018-12-28T19:42:36Z</time>
      </trkpt>
      <trkpt lat="35.959020" lon="-112.131870">
        <ele>2028.849</ele>
        <time>2018-12-28T19:42:56Z</time>
      </trkpt>
      <trkpt lat="35.958770" lon="-112.131880">
        <ele>2028.410</ele>
        <time>2018-12-28T19:43:16Z</time>
      </trkpt>
      <trkpt lat="35.958570" lon="-112.131920">
        <ele>2028.035</ele>
        <time>2018-12-28T19:43:36Z</time>
      </trkpt>
      <trkpt lat="35.958170" lon="-112.131940">
        <ele>2027.285</ele>
        <time>2018-12-28T19:43:56Z</time>
      </trkpt>
      <trkpt lat="35.958040" lon="-112.131950">
        <ele>2026.477</ele>
        <time>2018-12-28T19:44:16Z</time>
      </trkpt>
      <trkpt lat="35.957820" lon="-112.131960">
        <ele>2025.251</ele>
        <time>2018-12-28T19:44:36Z</time>
      </trkpt>
      <trkpt lat="35.957610" lon="-112.131960">
        <ele>2024.538</ele>
        <time>2018-12-28T19:44:56Z</time>
      </trkpt>
      <trkpt lat="35.957280" lon="-112.131950">
        <ele>2024.770</ele>
        <time>2018-12-28T19:45:16Z</time>
      </trkpt>
      <trkpt lat="35.956740" lon="-112.131920">
        <ele>2024.917</ele>
        <time>2018-12-28T19:45:36Z</time>
      </trkpt>
      <trkpt lat="35.955700" lon="-112.131860">
        <ele>2027.808</ele>
        <time>2018-12-28T19:45:56Z</time>
      </trkpt>
      <trkpt lat="35.955450" lon="-112.131820">
        <ele>2028.366</ele>
        <time>2018-12-28T19:46:16Z</time>
      </trkpt>
      <trkpt lat="35.953490" lon="-112.131730">
        <ele>2032.974</ele>
        <time>2018-12-28T19:46:36Z</time>
      </trkpt>
      <trkpt lat="35.952320" lon="-112.131670">
        <ele>2034.789</ele>
        <time>2018-12-28T19:46:56Z</time>
      </trkpt>
      <trkpt lat="35.952090" lon="-112.131650">
        <ele>2035.260</ele>
        <time>2018-12-28T19:47:16Z</time>
      </trkpt>
      <trkpt lat="35.951790" lon="-112.131630">
        <ele>2035.315</ele>
        <time>2018-12-28T19:47:36Z</time>
      </trkpt>
      <trkpt lat="35.951680" lon="-112.131620">
        <ele>2035.185</ele>
        <time>2018-12-28T19:47:56Z</time>
      </trkpt>
      <trkpt lat="35.951280" lon="-112.131600">
        <ele>2034.367</ele>
        <time>2018-12-28T19:48:16Z</time>
      </trkpt>
      <trkpt lat="35.950880" lon="-112.131580">
        <ele>2033.511</ele>
        <time>2018-12-28T19:48:36Z</time>
      </trkpt>
      <trkpt lat="35.950350" lon="-112.131560">
        <ele>2032.844</ele>
        <time>2018-12-28T19:48:56Z</time>
      </trkpt>
      <trkpt lat="35.950000" lon="-112.131540">
        <ele>2032.605</ele>
        <time>2018-12-28T19:49:16Z</time>
      </trkpt>
      <trkpt lat="35.949570" lon="-112.131520">
        <ele>2032.515</ele>
        <time>2018-12-28T19:49:36Z</time>
      </trkpt>
      <trkpt lat="35.949240" lon="-112.131510">
        <ele>2032.408</ele>
        <time>2018-12-28T19:49:56Z</time>
      </trkpt>
      <trkpt lat="35.948920" lon="-112.131490">
        <ele>2032.277</ele>
        <time>2018-12-28T19:50:16Z</time>
      </trkpt>
      <trkpt lat="35.948700" lon="-112.131480">
        <ele>2032.115</ele>
        <time>2018-12-28T19:50:36Z</time>
      </trkpt>
      <trkpt lat="35.948370" lon="-112.131470">
        <ele>2031.990</ele>
        <time>2018-12-28T19:50:56Z</time>
      </trkpt>
      <trkpt lat="35.948040" lon="-112.131450">
        <ele>2031.731</ele>
        <time>2018-12-28T19:51:16Z</time>
      </trkpt>
      <trkpt lat="35.947270" lon="-112.131410">
        <ele>2031.066</ele>
        <time>2018-12-28T19:51:36Z</time>
      </trkpt>
      <trkpt lat="35.946830" lon="-112.131390">
        <ele>2030.996</ele>
        <time>2018-12-28T19:51:56Z</time>
      </trkpt>
      <trkpt lat="35.946280" lon="-112.131370">
        <ele>2031.728</ele>
        <time>2018-12-28T19:52:16Z</time>
      </trkpt>
      <trkpt lat="35.945640" lon="-112.131330">
        <ele>2033.042</ele>
        <time>2018-12-28T19:52:36Z</time>
      </trkpt>
      <trkpt lat="35.944530" lon="-112.131280">
        <ele>2033.679</ele>
        <time>2018-12-28T19:52:56Z</time>
      </trkpt>
      <trkpt lat="35.942680" lon="-112.131190">
        <ele>2033.705</ele>
        <time>2018-12-28T19:53:16Z</time>
      </trkpt>
      <trkpt lat="35.941320" lon="-112.131110">
        <ele>2028.825</ele>
        <time>2018-12-28T19:53:36Z</time>
      </trkpt>
      <trkpt lat="35.940000" lon="-112.131050">
        <ele>2024.008</ele>
        <time>2018-12-28T19:53:56Z</time>
      </trkpt>
      <trkpt lat="35.939440" lon="-112.131020">
        <ele>2022.880</ele>
        <time>2018-12-28T19:54:16Z</time>
      </trkpt>
      <trkpt lat="35.939340" lon="-112.131020">
        <ele>2022.958</ele>
        <time>2018-12-28T19:54:36Z</time>
      </trkpt>
      <trkpt lat="35.939180" lon="-112.131050">
        <ele>2023.063</ele>
        <time>2018-12-28T19:54:56Z</time>
      </trkpt>
      <trkpt lat="35.939070" lon="-112.131040">
        <ele>2023.114</ele>
        <time>2018-12-28T19:55:16Z</time>
      </trkpt>
      <trkpt lat="35.938660" lon="-112.131030">
        <ele>2022.449</ele>
        <time>2018-12-28T19:55:36Z</time>
      </trkpt>
      <trkpt lat="35.938350" lon="-112.131020">
        <ele>2021.629</ele>
        <time>2018-12-28T19:55:56Z</time>
      </trkpt>
      <trkpt lat="35.937980" lon="-112.131000">
        <ele>2021.081</ele>
        <time>2018-12-28T19:56:16Z</time>
      </trkpt>
      <trkpt lat="35.937390" lon="-112.130970">
        <ele>2019.665</ele>
        <time>2018-12-28T19:56:36Z</time>
      </trkpt>
      <trkpt lat="35.936900" lon="-112.130950">
        <ele>2018.892</ele>
        <time>2018-12-28T19:56:56Z</time>
      </trkpt>
      <trkpt lat="35.936350" lon="-112.130920">
        <ele>2016.973</ele>
        <time>2018-12-28T19:57:16Z</time>
      </trkpt>
      <trkpt lat="35.936250" lon="-112.130910">
        <ele>2016.220</ele>
        <time>2018-12-28T19:57:36Z</time>
      </trkpt>
      <trkpt lat="35.936230" lon="-112.130900">
        <ele>2016.308</ele>
        <time>2018-12-28T19:57:56Z</time>
      </trkpt>
      <trkpt lat="35.936220" lon="-112.130900">
        <ele>2016.382</ele>
        <time>2018-12-28T19:58:16Z</time>
      </trkpt>
      <trkpt lat="35.936210" lon="-112.130890">
        <ele>2016.360</ele>
        <time>2018-12-28T19:58:36Z</time>
      </trkpt>
      <trkpt lat="35.936190" lon="-112.130880">
        <ele>2016.435</ele>
        <time>2018-12-28T19:58:56Z</time>
      </trkpt>
      <trkpt lat="35.935860" lon="-112.130870">
        <ele>2016.656</ele>
        <time>2018-12-28T19:59:16Z</time>
      </trkpt>
      <trkpt lat="35.935590" lon="-112.130850">
        <ele>2016.561</ele>
        <time>2018-12-28T19:59:36Z</time>
      </trkpt>
      <trkpt lat="35.935430" lon="-112.130850">
        <ele>2015.991</ele>
        <time>2018-12-28T19:59:56Z</time>
      </trkpt>
      <trkpt lat="35.935110" lon="-112.130830">
        <ele>2015.613</ele>
        <time>2018-12-28T20:00:16Z</time>
      </trkpt>
      <trkpt lat="35.934740" lon="-112.130810">
        <ele>2015.287</ele>
        <time>2018-12-28T20:00:36Z</time>
      </trkpt>
      <trkpt lat="35.934450" lon="-112.130800">
        <ele>2015.052</ele>
        <time>2018-12-28T20:00:56Z</time>
      </trkpt>
      <trkpt lat="35.934190" lon="-112.130780">
        <ele>2014.253</ele>
        <time>2018-12-28T20:01:16Z</time>
      </trkpt>
      <trkpt lat="35.933970" lon="-112.130780">
        <ele>2013.108</ele>
        <time>2018-12-28T20:01:36Z</time>
      </trkpt>
      <trkpt lat="35.933830" lon="-112.130770">
        <ele>2012.508</ele>
        <time>2018-12-28T20:01:56Z</time>
      </trkpt>
      <trkpt lat="35.933620" lon="-112.130760">
        <ele>2012.298</ele>
        <time>2018-12-28T20:02:16Z</time>
      </trkpt>
      <trkpt lat="35.933300" lon="-112.130740">
        <ele>2012.666</ele>
        <time>2018-12-28T20:02:36Z</time>
      </trkpt>
      <trkpt lat="35.932980" lon="-112.130730">
        <ele>2012.881</ele>
        <time>2018-12-28T20:02:56Z</time>
      </trkpt>
      <trkpt lat="35.932430" lon="-112.130700">
        <ele>2013.452</ele>
        <time>2018-12-28T20:03:16Z</time>
      </trkpt>
      <trkpt lat="35.931820" lon="-112.130670">
        <ele>2014.897</ele>
        <time>2018-12-28T20:03:36Z</time>
      </trkpt>
      <trkpt lat="35.930470" lon="-112.130600">
        <ele>2018.017</ele>
        <time>2018-12-28T20:03:56Z</time>
      </trkpt>
      <trkpt lat="35.929910" lon="-112.130580">
        <ele>2018.469</ele>
        <time>2018-12-28T20:04:16Z</time>
      </trkpt>
      <trkpt lat="35.929600" lon="-112.130560">
        <ele>2017.993</ele>
        <time>2018-12-28T20:04:36Z</time>
      </trkpt>
      <trkpt lat="35.929080" lon="-112.130540">
        <ele>2016.437</ele>
        <time>2018-12-28T20:04:56Z</time>
      </trkpt>
      <trkpt lat="35.928310" lon="-112.130510">
        <ele>2013.749</ele>
        <time>2018-12-28T20:05:16Z</time>
      </trkpt>
      <trkpt lat="35.927400" lon="-112.130470">
        <ele>2009.713</ele>
        <time>2018-12-28T20:05:36Z</time>
      </trkpt>
      <trkpt lat="35.927080" lon="-112.130450">
        <ele>2009.408</ele>
        <time>2018-12-28T20:05:56Z</time>
      </trkpt>
      <trkpt lat="35.926470" lon="-112.130420">
        <ele>2008.736</ele>
        <time>2018-12-28T20:06:16Z</time>
      </trkpt>
      <trkpt lat="35.925620" lon="-112.130380">
        <ele>2008.644</ele>
        <time>2018-12-28T20:06:36Z</time>
      </trkpt>
      <trkpt lat="35.915430" lon="-112.129890">
        <ele>2015.769</ele>
        <time>2018-12-28T20:06:56Z</time>
      </trkpt>
      <trkpt lat="35.913450" lon="-112.129800">
        <ele>2017.470</ele>
        <time>2018-12-28T20:07:16Z</time>
      </trkpt>
      <trkpt lat="35.911590" lon="-112.129710">
        <ele>2019.585</ele>
        <time>2018-12-28T20:07:36Z</time>
      </trkpt>
      <trkpt lat="35.909360" lon="-112.129610">
        <ele>2022.645</ele>
        <time>2018-12-28T20:07:56Z</time>
      </trkpt>
      <trkpt lat="35.908360" lon="-112.129570">
        <ele>2023.167</ele>
        <time>2018-12-28T20:08:16Z</time>
      </trkpt>
      <trkpt lat="35.907690" lon="-112.129550">
        <ele>2023.581</ele>
        <time>2018-12-28T20:08:36Z</time>
      </trkpt>
      <trkpt lat="35.907120" lon="-112.129540">
        <ele>2024.048</ele>
        <time>2018-12-28T20:08:56Z</time>
      </trkpt>
      <trkpt lat="35.906400" lon="-112.129530">
        <ele>2022.261</ele>
        <time>2018-12-28T20:09:16Z</time>
      </trkpt>
      <trkpt lat="35.905920" lon="-112.129530">
        <ele>2019.817</ele>
        <time>2018-12-28T20:09:36Z</time>
      </trkpt>
      <trkpt lat="35.904950" lon="-112.129530">
        <ele>2015.708</ele>
        <time>2018-12-28T20:09:56Z</time>
      </trkpt>
      <trkpt lat="35.904080" lon="-112.129540">
        <ele>2012.857</ele>
        <time>2018-12-28T20:10:16Z</time>
      </trkpt>
      <trkpt lat="35.902750" lon="-112.129570">
        <ele>2009.125</ele>
        <time>2018-12-28T20:10:36Z</time>
      </trkpt>
      <trkpt lat="35.902550" lon="-112.129570">
        <ele>2008.740</ele>
        <time>2018-12-28T20:10:56Z</time>
      </trkpt>
      <trkpt lat="35.901980" lon="-112.129590">
        <ele>2006.041</ele>
        <time>2018-12-28T20:11:16Z</time>
      </trkpt>
      <trkpt lat="35.901100" lon="-112.129640">
        <ele>2002.166</ele>
        <time>2018-12-28T20:11:36Z</time>
      </trkpt>
      <trkpt lat="35.900320" lon="-112.129680">
        <ele>2000.696</ele>
        <time>2018-12-28T20:11:56Z</time>
      </trkpt>
      <trkpt lat="35.899730" lon="-112.129710">
        <ele>1998.178</ele>
        <time>2018-12-28T20:12:16Z</time>
      </trkpt>
      <trkpt lat="35.899250" lon="-112.129740">
        <ele>1998.592</ele>
        <time>2018-12-28T20:12:36Z</time>
      </trkpt>
      <trkpt lat="35.898640" lon="-112.129790">
        <ele>1999.411</ele>
        <time>2018-12-28T20:12:56Z</time>
      </trkpt>
      <trkpt lat="35.898140" lon="-112.129820">
        <ele>1999.221</ele>
        <time>2018-12-28T20:13:16Z</time>
      </trkpt>
      <trkpt lat="35.897690" lon="-112.129860">
        <ele>1998.103</ele>
        <time>2018-12-28T20:13:36Z</time>
      </trkpt>
      <trkpt lat="35.897230" lon="-112.129910">
        <ele>1996.808</ele>
        <time>2018-12-28T20:13:56Z</time>
      </trkpt>
      <trkpt lat="35.896610" lon="-112.129970">
        <ele>1995.534</ele>
        <time>2018-12-28T20:14:16Z</time>
      </trkpt>
      <trkpt lat="35.896100" lon="-112.130020">
        <ele>1995.582</ele>
        <time>2018-12-28T20:14:36Z</time>
      </trkpt>
      <trkpt lat="35.895490" lon="-112.130080">
        <ele>1996.497</ele>
        <time>2018-12-28T20:14:56Z</time>
      </trkpt>
      <trkpt lat="35.894750" lon="-112.130170">
        <ele>1994.228</ele>
        <time>2018-12-28T20:15:16Z</time>
      </trkpt>
      <trkpt lat="35.894250" lon="-112.130230">
        <ele>1993.163</ele>
        <time>2018-12-28T20:15:36Z</time>
      </trkpt>
      <trkpt lat="35.893940" lon="-112.130270">
        <ele>1990.823</ele>
        <time>2018-12-28T20:15:56Z</time>
      </trkpt>
      <trkpt lat="35.893090" lon="-112.130390">
        <ele>1986.325</ele>
        <time>2018-12-28T20:16:16Z</time>
      </trkpt>
      <trkpt lat="35.892790" lon="-112.130430">
        <ele>1985.079</ele>
        <time>2018-12-28T20:16:36Z</time>
      </trkpt>
      <trkpt lat="35.892120" lon="-112.130520">
        <ele>1982.079</ele>
        <time>2018-12-28T20:16:56Z</time>
      </trkpt>
      <trkpt lat="35.891030" lon="-112.130700">
        <ele>1978.405</ele>
        <time>2018-12-28T20:17:16Z</time>
      </trkpt>
      <trkpt lat="35.890170" lon="-112.130840">
        <ele>1978.225</ele>
        <time>2018-12-28T20:17:36Z</time>
      </trkpt>
      <trkpt lat="35.889340" lon="-112.130980">
        <ele>1974.608</ele>
        <time>2018-12-28T20:17:56Z</time>
      </trkpt>
      <trkpt lat="35.888520" lon="-112.131120">
        <ele>1973.920</ele>
        <time>2018-12-28T20:18:16Z</time>
      </trkpt>
      <trkpt lat="35.886990" lon="-112.131380">
        <ele>1971.638</ele>
        <time>2018-12-28T20:18:36Z</time>
      </trkpt>
      <trkpt lat="35.886310" lon="-112.131480">
        <ele>1970.883</ele>
        <time>2018-12-28T20:18:56Z</time>
      </trkpt>
      <trkpt lat="35.884580" lon="-112.131720">
        <ele>1973.124</ele>
        <time>2018-12-28T20:19:16Z</time>
      </trkpt>
      <trkpt lat="35.884070" lon="-112.131780">
        <ele>1976.369</ele>
        <time>2018-12-28T20:19:36Z</time>
      </trkpt>
      <trkpt lat="35.883400" lon="-112.131860">
        <ele>1978.649</ele>
        <time>2018-12-28T20:19:56Z</time>
      </trkpt>
      <trkpt lat="35.882990" lon="-112.131900">
        <ele>1979.441</ele>
        <time>2018-12-28T20:20:16Z</time>
      </trkpt>
      <trkpt lat="35.882650" lon="-112.131940">
        <ele>1979.595</ele>
        <time>2018-12-28T20:20:36Z</time>
      </trkpt>
      <trkpt lat="35.882280" lon="-112.131970">
        <ele>1980.793</ele>
        <time>2018-12-28T20:20:56Z</time>
      </trkpt>
      <trkpt lat="35.881930" lon="-112.132010">
        <ele>1980.365</ele>
        <time>2018-12-28T20:21:16Z</time>
      </trkpt>
      <trkpt lat="35.881350" lon="-112.132060">
        <ele>1978.621</ele>
        <time>2018-12-28T20:21:36Z</time>
      </trkpt>
      <trkpt lat="35.880720" lon="-112.132110">
        <ele>1976.808</ele>
        <time>2018-12-28T20:21:56Z</time>
      </trkpt>
      <trkpt lat="35.879820" lon="-112.132180">
        <ele>1974.612</ele>
        <time>2018-12-28T20:22:16Z</time>
      </trkpt>
      <trkpt lat="35.879090" lon="-112.132230">
        <ele>1971.730</ele>
        <time>2018-12-28T20:22:36Z</time>
      </trkpt>
      <trkpt lat="35.878450" lon="-112.132270">
        <ele>1969.965</ele>
        <time>2018-12-28T20:22:56Z</time>
      </trkpt>
      <trkpt lat="35.877850" lon="-112.132310">
        <ele>1968.956</ele>
        <time>2018-12-28T20:23:16Z</time>
      </trkpt>
      <trkpt lat="35.876990" lon="-112.132370">
        <ele>1967.331</ele>
        <time>2018-12-28T20:23:36Z</time>
      </trkpt>
      <trkpt lat="35.875950" lon="-112.132440">
        <ele>1964.061</ele>
        <time>2018-12-28T20:23:56Z</time>
      </trkpt>
      <trkpt lat="35.875200" lon="-112.132480">
        <ele>1962.123</ele>
        <time>2018-12-28T20:24:16Z</time>
      </trkpt>
      <trkpt lat="35.874580" lon="-112.132520">
        <ele>1960.117</ele>
        <time>2018-12-28T20:24:36Z</time>
      </trkpt>
      <trkpt lat="35.873620" lon="-112.132580">
        <ele>1956.216</ele>
        <time>2018-12-28T20:24:56Z</time>
      </trkpt>
      <trkpt lat="35.873490" lon="-112.132590">
        <ele>1955.776</ele>
        <time>2018-12-28T20:25:16Z</time>
      </trkpt>
      <trkpt lat="35.873290" lon="-112.132610">
        <ele>1954.213</ele>
        <time>2018-12-28T20:25:36Z</time>
      </trkpt>
      <trkpt lat="35.873140" lon="-112.132620">
        <ele>1953.108</ele>
        <time>2018-12-28T20:25:56Z</time>
      </trkpt>
      <trkpt lat="35.873020" lon="-112.132630">
        <ele>1952.114</ele>
        <time>2018-12-28T20:26:16Z</time>
      </trkpt>
      <trkpt lat="35.872840" lon="-112.132640">
        <ele>1951.682</ele>
        <time>2018-12-28T20:26:36Z</time>
      </trkpt>
      <trkpt lat="35.872580" lon="-112.132650">
        <ele>1952.457</ele>
        <time>2018-12-28T20:26:56Z</time>
      </trkpt>
      <trkpt lat="35.872260" lon="-112.132670">
        <ele>1952.738</ele>
        <time>2018-12-28T20:27:16Z</time>
      </trkpt>
      <trkpt lat="35.872040" lon="-112.132680">
        <ele>1952.973</ele>
        <time>2018-12-28T20:27:36Z</time>
      </trkpt>
      <trkpt lat="35.871930" lon="-112.132690">
        <ele>1952.963</ele>
        <time>2018-12-28T20:27:56Z</time>
      </trkpt>
      <trkpt lat="35.871710" lon="-112.132700">
        <ele>1952.835</ele>
        <time>2018-12-28T20:28:16Z</time>
      </trkpt>
      <trkpt lat="35.871380" lon="-112.132730">
        <ele>1952.289</ele>
        <time>2018-12-28T20:28:36Z</time>
      </trkpt>
      <trkpt lat="35.871050" lon="-112.132750">
        <ele>1951.538</ele>
        <time>2018-12-28T20:28:56Z</time>
      </trkpt>
      <trkpt lat="35.870720" lon="-112.132780">
        <ele>1950.470</ele>
        <time>2018-12-28T20:29:16Z</time>
      </trkpt>
      <trkpt lat="35.870510" lon="-112.132790">
        <ele>1950.217</ele>
        <time>2018-12-28T20:29:36Z</time>
      </trkpt>
      <trkpt lat="35.870200" lon="-112.132810">
        <ele>1950.908</ele>
        <time>2018-12-28T20:29:56Z</time>
      </trkpt>
      <trkpt lat="35.869880" lon="-112.132830">
        <ele>1951.656</ele>
        <time>2018-12-28T20:30:16Z</time>
      </trkpt>
      <trkpt lat="35.869660" lon="-112.132840">
        <ele>1951.734</ele>
        <time>2018-12-28T20:30:36Z</time>
      </trkpt>
      <trkpt lat="35.869310" lon="-112.132870">
        <ele>1951.949</ele>
        <time>2018-12-28T20:30:56Z</time>
      </trkpt>
      <trkpt lat="35.868780" lon="-112.132900">
        <ele>1952.460</ele>
        <time>2018-12-28T20:31:16Z</time>
      </trkpt>
      <trkpt lat="35.868240" lon="-112.132940">
        <ele>1952.335</ele>
        <time>2018-12-28T20:31:36Z</time>
      </trkpt>
      <trkpt lat="35.867490" lon="-112.132980">
        <ele>1952.295</ele>
        <time>2018-12-28T20:31:56Z</time>
      </trkpt>
      <trkpt lat="35.867100" lon="-112.133010">
        <ele>1951.777</ele>
        <time>2018-12-28T20:32:16Z</time>
      </trkpt>
      <trkpt lat="35.866710" lon="-112.133030">
        <ele>1951.121</ele>
        <time>2018-12-28T20:32:36Z</time>
      </trkpt>
      <trkpt lat="35.866380" lon="-112.133050">
        <ele>1950.641</ele>
        <time>2018-12-28T20:32:56Z</time>
      </trkpt>
      <trkpt lat="35.866060" lon="-112.133070">
        <ele>1950.381</ele>
        <time>2018-12-28T20:33:16Z</time>
      </trkpt>
      <trkpt lat="35.865800" lon="-112.133090">
        <ele>1949.709</ele>
        <time>2018-12-28T20:33:36Z</time>
      </trkpt>
      <trkpt lat="35.865720" lon="-112.133090">
        <ele>1949.508</ele>
        <time>2018-12-28T20:33:56Z</time>
      </trkpt>
      <trkpt lat="35.865360" lon="-112.133120">
        <ele>1948.277</ele>
        <time>2018-12-28T20:34:16Z</time>
      </trkpt>
      <trkpt lat="35.865050" lon="-112.133140">
        <ele>1946.625</ele>
        <time>2018-12-28T20:34:36Z</time>
      </trkpt>
      <trkpt lat="35.864830" lon="-112.133150">
        <ele>1946.020</ele>
        <time>2018-12-28T20:34:56Z</time>
      </trkpt>
      <trkpt lat="35.864500" lon="-112.133180">
        <ele>1945.471</ele>
        <time>2018-12-28T20:35:16Z</time>
      </trkpt>
      <trkpt lat="35.864300" lon="-112.133190">
        <ele>1945.136</ele>
        <time>2018-12-28T20:35:36Z</time>
      </trkpt>
      <trkpt lat="35.863970" lon="-112.133210">
        <ele>1946.296</ele>
        <time>2018-12-28T20:35:56Z</time>
      </trkpt>
      <trkpt lat="35.863520" lon="-112.133230">
        <ele>1946.768</ele>
        <time>2018-12-28T20:36:16Z</time>
      </trkpt>
      <trkpt lat="35.863190" lon="-112.133260">
        <ele>1946.972</ele>
        <time>2018-12-28T20:36:36Z</time>
      </trkpt>
      <trkpt lat="35.862860" lon="-112.133280">
        <ele>1947.379</ele>
        <time>2018-12-28T20:36:56Z</time>
      </trkpt>
      <trkpt lat="35.862320" lon="-112.133310">
        <ele>1947.605</ele>
        <time>2018-12-28T20:37:16Z</time>
      </trkpt>
      <trkpt lat="35.861880" lon="-112.133350">
        <ele>1946.825</ele>
        <time>2018-12-28T20:37:36Z</time>
      </trkpt>
      <trkpt lat="35.861530" lon="-112.133370">
        <ele>1946.708</ele>
        <time>2018-12-28T20:37:56Z</time>
      </trkpt>
      <trkpt lat="35.861430" lon="-112.133380">
        <ele>1946.720</ele>
        <time>2018-12-28T20:38:16Z</time>
      </trkpt>
      <trkpt lat="35.861310" lon="-112.133380">
        <ele>1946.758</ele>
        <time>2018-12-28T20:38:36Z</time>
      </trkpt>
      <trkpt lat="35.861160" lon="-112.133390">
        <ele>1946.753</ele>
        <time>2018-12-28T20:38:56Z</time>
      </trkpt>
      <trkpt lat="35.860440" lon="-112.133440">
        <ele>1946.774</ele>
        <time>2018-12-28T20:39:16Z</time>
      </trkpt>
      <trkpt lat="35.860120" lon="-112.133450">
        <ele>1946.289</ele>
        <time>2018-12-28T20:39:36Z</time>
      </trkpt>
      <trkpt lat="35.859800" lon="-112.133480">
        <ele>1945.629</ele>
        <time>2018-12-28T20:39:56Z</time>
      </trkpt>
      <trkpt lat="35.859590" lon="-112.133490">
        <ele>1945.311</ele>
        <time>2018-12-28T20:40:16Z</time>
      </trkpt>
      <trkpt lat="35.859370" lon="-112.133510">
        <ele>1944.245</ele>
        <time>2018-12-28T20:40:36Z</time>
      </trkpt>
      <trkpt lat="35.859130" lon="-112.133520">
        <ele>1943.692</ele>
        <time>2018-12-28T20:40:56Z</time>
      </trkpt>
      <trkpt lat="35.859010" lon="-112.133530">
        <ele>1943.673</ele>
        <time>2018-12-28T20:41:16Z</time>
      </trkpt>
      <trkpt lat="35.858860" lon="-112.133540">
        <ele>1943.620</ele>
        <time>2018-12-28T20:41:36Z</time>
      </trkpt>
      <trkpt lat="35.858720" lon="-112.133550">
        <ele>1943.608</ele>
        <time>2018-12-28T20:41:56Z</time>
      </trkpt>
      <trkpt lat="35.858550" lon="-112.133560">
        <ele>1943.552</ele>
        <time>2018-12-28T20:42:16Z</time>
      </trkpt>
      <trkpt lat="35.858370" lon="-112.133570">
        <ele>1943.410</ele>
        <time>2018-12-28T20:42:36Z</time>
      </trkpt>
      <trkpt lat="35.858130" lon="-112.133590">
        <ele>1943.375</ele>
        <time>2018-12-28T20:42:56Z</time>
      </trkpt>
      <trkpt lat="35.857350" lon="-112.133630">
        <ele>1943.426</ele>
        <time>2018-12-28T20:43:16Z</time>
      </trkpt>
      <trkpt lat="35.856810" lon="-112.133660">
        <ele>1942.551</ele>
        <time>2018-12-28T20:43:36Z</time>
      </trkpt>
      <trkpt lat="35.855580" lon="-112.133700">
        <ele>1938.531</ele>
        <time>2018-12-28T20:43:56Z</time>
      </trkpt>
      <trkpt lat="35.855220" lon="-112.133710">
        <ele>1937.113</ele>
        <time>2018-12-28T20:44:16Z</time>
      </trkpt>
      <trkpt lat="35.854830" lon="-112.133710">
        <ele>1935.617</ele>
        <time>2018-12-28T20:44:36Z</time>
      </trkpt>
      <trkpt lat="35.854270" lon="-112.133700">
        <ele>1933.292</ele>
        <time>2018-12-28T20:44:56Z</time>
      </trkpt>
      <trkpt lat="35.853460" lon="-112.133670">
        <ele>1930.173</ele>
        <time>2018-12-28T20:45:16Z</time>
      </trkpt>
      <trkpt lat="35.853050" lon="-112.133650">
        <ele>1928.420</ele>
        <time>2018-12-28T20:45:36Z</time>
      </trkpt>
      <trkpt lat="35.852060" lon="-112.133580">
        <ele>1924.208</ele>
        <time>2018-12-28T20:45:56Z</time>
      </trkpt>
      <trkpt lat="35.851300" lon="-112.133500">
        <ele>1921.972</ele>
        <time>2018-12-28T20:46:16Z</time>
      </trkpt>
      <trkpt lat="35.850430" lon="-112.133390">
        <ele>1917.330</ele>
        <time>2018-12-28T20:46:36Z</time>
      </trkpt>
      <trkpt lat="35.850060" lon="-112.133350">
        <ele>1913.545</ele>
        <time>2018-12-28T20:46:56Z</time>
      </trkpt>
      <trkpt lat="35.849660" lon="-112.133290">
        <ele>1915.366</ele>
        <time>2018-12-28T20:47:16Z</time>
      </trkpt>
      <trkpt lat="35.849550" lon="-112.133280">
        <ele>1915.831</ele>
        <time>2018-12-28T20:47:36Z</time>
      </trkpt>
      <trkpt lat="35.849440" lon="-112.133260">
        <ele>1916.371</ele>
        <time>2018-12-28T20:47:56Z</time>
      </trkpt>
      <trkpt lat="35.849340" lon="-112.133250">
        <ele>1916.733</ele>
        <time>2018-12-28T20:48:16Z</time>
      </trkpt>
      <trkpt lat="35.849230" lon="-112.133230">
        <ele>1917.267</ele>
        <time>2018-12-28T20:48:36Z</time>
      </trkpt>
      <trkpt lat="35.849110" lon="-112.133210">
        <ele>1917.868</ele>
        <time>2018-12-28T20:48:56Z</time>
      </trkpt>
      <trkpt lat="35.848260" lon="-112.133090">
        <ele>1919.942</ele>
        <time>2018-12-28T20:49:16Z</time>
      </trkpt>
      <trkpt lat="35.848020" lon="-112.133060">
        <ele>1920.126</ele>
        <time>2018-12-28T20:49:36Z</time>
      </trkpt>
      <trkpt lat="35.847920" lon="-112.133040">
        <ele>1920.108</ele>
        <time>2018-12-28T20:49:56Z</time>
      </trkpt>
      <trkpt lat="35.847770" lon="-112.133020">
        <ele>1920.259</ele>
        <time>2018-12-28T20:50:16Z</time>
      </trkpt>
      <trkpt lat="35.847580" lon="-112.133000">
        <ele>1920.367</ele>
        <time>2018-12-28T20:50:36Z</time>
      </trkpt>
      <trkpt lat="35.847370" lon="-112.132970">
        <ele>1920.272</ele>
        <time>2018-12-28T20:50:56Z</time>
      </trkpt>
      <trkpt lat="35.847270" lon="-112.132960">
        <ele>1920.133</ele>
        <time>2018-12-28T20:51:16Z</time>
      </trkpt>
      <trkpt lat="35.847050" lon="-112.132930">
        <ele>1919.738</ele>
        <time>2018-12-28T20:51:36Z</time>
      </trkpt>
      <trkpt lat="35.846820" lon="-112.132900">
        <ele>1918.918</ele>
        <time>2018-12-28T20:51:56Z</time>
      </trkpt>
      <trkpt lat="35.846600" lon="-112.132870">
        <ele>1918.580</ele>
        <time>2018-12-28T20:52:16Z</time>
      </trkpt>
      <trkpt lat="35.846380" lon="-112.132840">
        <ele>1918.234</ele>
        <time>2018-12-28T20:52:36Z</time>
      </trkpt>
      <trkpt lat="35.846210" lon="-112.132820">
        <ele>1918.052</ele>
        <time>2018-12-28T20:52:56Z</time>
      </trkpt>
      <trkpt lat="35.845950" lon="-112.132780">
        <ele>1917.753</ele>
        <time>2018-12-28T20:53:16Z</time>
      </trkpt>
      <trkpt lat="35.845640" lon="-112.132740">
        <ele>1916.608</ele>
        <time>2018-12-28T20:53:36Z</time>
      </trkpt>
      <trkpt lat="35.845000" lon="-112.132650">
        <ele>1915.908</ele>
        <time>2018-12-28T20:53:56Z</time>
      </trkpt>
      <trkpt lat="35.844690" lon="-112.132610">
        <ele>1915.718</ele>
        <time>2018-12-28T20:54:16Z</time>
      </trkpt>
      <trkpt lat="35.844470" lon="-112.132580">
        <ele>1915.696</ele>
        <time>2018-12-28T20:54:36Z</time>
      </trkpt>
      <trkpt lat="35.844180" lon="-112.132540">
        <ele>1915.141</ele>
        <time>2018-12-28T20:54:56Z</time>
      </trkpt>
      <trkpt lat="35.843980" lon="-112.132510">
        <ele>1914.632</ele>
        <time>2018-12-28T20:55:16Z</time>
      </trkpt>
      <trkpt lat="35.843870" lon="-112.132500">
        <ele>1914.177</ele>
        <time>2018-12-28T20:55:36Z</time>
      </trkpt>
      <trkpt lat="35.843530" lon="-112.132450">
        <ele>1912.857</ele>
        <time>2018-12-28T20:55:56Z</time>
      </trkpt>
      <trkpt lat="35.843210" lon="-112.132410">
        <ele>1911.749</ele>
        <time>2018-12-28T20:56:16Z</time>
      </trkpt>
      <trkpt lat="35.842890" lon="-112.132360">
        <ele>1910.323</ele>
        <time>2018-12-28T20:56:36Z</time>
      </trkpt>
      <trkpt lat="35.842740" lon="-112.132340">
        <ele>1909.673</ele>
        <time>2018-12-28T20:56:56Z</time>
      </trkpt>
      <trkpt lat="35.841570" lon="-112.132200">
        <ele>1905.885</ele>
        <time>2018-12-28T20:57:16Z</time>
      </trkpt>
      <trkpt lat="35.841270" lon="-112.132160">
        <ele>1906.413</ele>
        <time>2018-12-28T20:57:36Z</time>
      </trkpt>
      <trkpt lat="35.840990" lon="-112.132120">
        <ele>1906.708</ele>
        <time>2018-12-28T20:57:56Z</time>
      </trkpt>
      <trkpt lat="35.840720" lon="-112.132100">
        <ele>1906.890</ele>
        <time>2018-12-28T20:58:16Z</time>
      </trkpt>
      <trkpt lat="35.840620" lon="-112.132090">
        <ele>1906.918</ele>
        <time>2018-12-28T20:58:36Z</time>
      </trkpt>
      <trkpt lat="35.840400" lon="-112.132060">
        <ele>1907.393</ele>
        <time>2018-12-28T20:58:56Z</time>
      </trkpt>
      <trkpt lat="35.840170" lon="-112.132040">
        <ele>1908.094</ele>
        <time>2018-12-28T20:59:16Z</time>
      </trkpt>
      <trkpt lat="35.840070" lon="-112.132030">
        <ele>1908.329</ele>
        <time>2018-12-28T20:59:36Z</time>
      </trkpt>
      <trkpt lat="35.839970" lon="-112.132020">
        <ele>1908.639</ele>
        <time>2018-12-28T20:59:56Z</time>
      </trkpt>
      <trkpt lat="35.839860" lon="-112.132010">
        <ele>1908.941</ele>
        <time>2018-12-28T21:00:16Z</time>
      </trkpt>
      <trkpt lat="35.839740" lon="-112.132000">
        <ele>1908.915</ele>
        <time>2018-12-28T21:00:36Z</time>
      </trkpt>
      <trkpt lat="35.839540" lon="-112.131990">
        <ele>1908.852</ele>
        <time>2018-12-28T21:00:56Z</time>
      </trkpt>
      <trkpt lat="35.839440" lon="-112.131980">
        <ele>1908.853</ele>
        <time>2018-12-28T21:01:16Z</time>
      </trkpt>
      <trkpt lat="35.839090" lon="-112.131960">
        <ele>1909.008</ele>
        <time>2018-12-28T21:01:36Z</time>
      </trkpt>
      <trkpt lat="35.838450" lon="-112.131930">
        <ele>1909.608</ele>
        <time>2018-12-28T21:01:56Z</time>
      </trkpt>
      <trkpt lat="35.838120" lon="-112.131910">
        <ele>1910.268</ele>
        <time>2018-12-28T21:02:16Z</time>
      </trkpt>
      <trkpt lat="35.837880" lon="-112.131900">
        <ele>1911.016</ele>
        <time>2018-12-28T21:02:36Z</time>
      </trkpt>
      <trkpt lat="35.837650" lon="-112.131890">
        <ele>1912.041</ele>
        <time>2018-12-28T21:02:56Z</time>
      </trkpt>
      <trkpt lat="35.837360" lon="-112.131890">
        <ele>1912.512</ele>
        <time>2018-12-28T21:03:16Z</time>
      </trkpt>
      <trkpt lat="35.836950" lon="-112.131880">
        <ele>1913.527</ele>
        <time>2018-12-28T21:03:36Z</time>
      </trkpt>
      <trkpt lat="35.836730" lon="-112.131870">
        <ele>1913.897</ele>
        <time>2018-12-28T21:03:56Z</time>
      </trkpt>
      <trkpt lat="35.836600" lon="-112.131870">
        <ele>1913.849</ele>
        <time>2018-12-28T21:04:16Z</time>
      </trkpt>
      <trkpt lat="35.836400" lon="-112.131870">
        <ele>1913.863</ele>
        <time>2018-12-28T21:04:36Z</time>
      </trkpt>
      <trkpt lat="35.835800" lon="-112.131870">
        <ele>1913.732</ele>
        <time>2018-12-28T21:04:56Z</time>
      </trkpt>
      <trkpt lat="35.835410" lon="-112.131880">
        <ele>1913.392</ele>
        <time>2018-12-28T21:05:16Z</time>
      </trkpt>
      <trkpt lat="35.834620" lon="-112.131890">
        <ele>1912.611</ele>
        <time>2018-12-28T21:05:36Z</time>
      </trkpt>
      <trkpt lat="35.834300" lon="-112.131890">
        <ele>1912.508</ele>
        <time>2018-12-28T21:05:56Z</time>
      </trkpt>
      <trkpt lat="35.833980" lon="-112.131900">
        <ele>1912.176</ele>
        <time>2018-12-28T21:06:16Z</time>
      </trkpt>
      <trkpt lat="35.833640" lon="-112.131900">
        <ele>1911.734</ele>
        <time>2018-12-28T21:06:36Z</time>
      </trkpt>
      <trkpt lat="35.833490" lon="-112.131900">
        <ele>1911.389</ele>
        <time>2018-12-28T21:06:56Z</time>
      </trkpt>
      <trkpt lat="35.833340" lon="-112.131910">
        <ele>1911.040</ele>
        <time>2018-12-28T21:07:16Z</time>
      </trkpt>
      <trkpt lat="35.833160" lon="-112.131910">
        <ele>1910.785</ele>
        <time>2018-12-28T21:07:36Z</time>
      </trkpt>
      <trkpt lat="35.833030" lon="-112.131910">
        <ele>1910.515</ele>
        <time>2018-12-28T21:07:56Z</time>
      </trkpt>
      <trkpt lat="35.832880" lon="-112.131910">
        <ele>1910.287</ele>
        <time>2018-12-28T21:08:16Z</time>
      </trkpt>
      <trkpt lat="35.832730" lon="-112.131920">
        <ele>1910.011</ele>
        <time>2018-12-28T21:08:36Z</time>
      </trkpt>
      <trkpt lat="35.832490" lon="-112.131920">
        <ele>1909.981</ele>
        <time>2018-12-28T21:08:56Z</time>
      </trkpt>
      <trkpt lat="35.832280" lon="-112.131930">
        <ele>1909.861</ele>
        <time>2018-12-28T21:09:16Z</time>
      </trkpt>
      <trkpt lat="35.832010" lon="-112.131940">
        <ele>1909.617</ele>
        <time>2018-12-28T21:09:36Z</time>
      </trkpt>
      <trkpt lat="35.831810" lon="-112.131950">
        <ele>1909.308</ele>
        <time>2018-12-28T21:09:56Z</time>
      </trkpt>
      <trkpt lat="35.831750" lon="-112.131950">
        <ele>1909.221</ele>
        <time>2018-12-28T21:10:16Z</time>
      </trkpt>
      <trkpt lat="35.831420" lon="-112.131960">
        <ele>1908.259</ele>
        <time>2018-12-28T21:10:36Z</time>
      </trkpt>
      <trkpt lat="35.830760" lon="-112.131970">
        <ele>1906.724</ele>
        <time>2018-12-28T21:10:56Z</time>
      </trkpt>
      <trkpt lat="35.830320" lon="-112.131980">
        <ele>1906.565</ele>
        <time>2018-12-28T21:11:16Z</time>
      </trkpt>
      <trkpt lat="35.829770" lon="-112.131980">
        <ele>1906.920</ele>
        <time>2018-12-28T21:11:36Z</time>
      </trkpt>
      <trkpt lat="35.829320" lon="-112.131990">
        <ele>1908.050</ele>
        <time>2018-12-28T21:11:56Z</time>
      </trkpt>
      <trkpt lat="35.828700" lon="-112.132000">
        <ele>1906.732</ele>
        <time>2018-12-28T21:12:16Z</time>
      </trkpt>
      <trkpt lat="35.827890" lon="-112.132010">
        <ele>1906.416</ele>
        <time>2018-12-28T21:12:36Z</time>
      </trkpt>
      <trkpt lat="35.827440" lon="-112.132020">
        <ele>1906.764</ele>
        <time>2018-12-28T21:12:56Z</time>
      </trkpt>
      <trkpt lat="35.826860" lon="-112.132030">
        <ele>1907.906</ele>
        <time>2018-12-28T21:13:16Z</time>
      </trkpt>
      <trkpt lat="35.826600" lon="-112.132030">
        <ele>1908.616</ele>
        <time>2018-12-28T21:13:36Z</time>
      </trkpt>
      <trkpt lat="35.826250" lon="-112.132030">
        <ele>1909.208</ele>
        <time>2018-12-28T21:13:56Z</time>
      </trkpt>
      <trkpt lat="35.825910" lon="-112.132040">
        <ele>1910.199</ele>
        <time>2018-12-28T21:14:16Z</time>
      </trkpt>
      <trkpt lat="35.825320" lon="-112.132050">
        <ele>1911.117</ele>
        <time>2018-12-28T21:14:36Z</time>
      </trkpt>
      <trkpt lat="35.824660" lon="-112.132060">
        <ele>1911.862</ele>
        <time>2018-12-28T21:14:56Z</time>
      </trkpt>
      <trkpt lat="35.824040" lon="-112.132070">
        <ele>1912.893</ele>
        <time>2018-12-28T21:15:16Z</time>
      </trkpt>
      <trkpt lat="35.823790" lon="-112.132070">
        <ele>1912.898</ele>
        <time>2018-12-28T21:15:36Z</time>
      </trkpt>
      <trkpt lat="35.822940" lon="-112.132090">
        <ele>1914.428</ele>
        <time>2018-12-28T21:15:56Z</time>
      </trkpt>
      <trkpt lat="35.822600" lon="-112.132090">
        <ele>1915.520</ele>
        <time>2018-12-28T21:16:16Z</time>
      </trkpt>
      <trkpt lat="35.822180" lon="-112.132090">
        <ele>1916.844</ele>
        <time>2018-12-28T21:16:36Z</time>
      </trkpt>
      <trkpt lat="35.821840" lon="-112.132100">
        <ele>1917.354</ele>
        <time>2018-12-28T21:16:56Z</time>
      </trkpt>
      <trkpt lat="35.821520" lon="-112.132100">
        <ele>1917.456</ele>
        <time>2018-12-28T21:17:16Z</time>
      </trkpt>
      <trkpt lat="35.821050" lon="-112.132100">
        <ele>1917.311</ele>
        <time>2018-12-28T21:17:36Z</time>
      </trkpt>
      <trkpt lat="35.820560" lon="-112.132090">
        <ele>1916.808</ele>
        <time>2018-12-28T21:17:56Z</time>
      </trkpt>
      <trkpt lat="35.820140" lon="-112.132090">
        <ele>1915.998</ele>
        <time>2018-12-28T21:18:16Z</time>
      </trkpt>
      <trkpt lat="35.819620" lon="-112.132070">
        <ele>1914.916</ele>
        <time>2018-12-28T21:18:36Z</time>
      </trkpt>
      <trkpt lat="35.819310" lon="-112.132060">
        <ele>1914.011</ele>
        <time>2018-12-28T21:18:56Z</time>
      </trkpt>
      <trkpt lat="35.819070" lon="-112.132050">
        <ele>1913.362</ele>
        <time>2018-12-28T21:19:16Z</time>
      </trkpt>
      <trkpt lat="35.818650" lon="-112.132030">
        <ele>1912.267</ele>
        <time>2018-12-28T21:19:36Z</time>
      </trkpt>
      <trkpt lat="35.818370" lon="-112.132010">
        <ele>1911.387</ele>
        <time>2018-12-28T21:19:56Z</time>
      </trkpt>
      <trkpt lat="35.818090" lon="-112.132000">
        <ele>1910.139</ele>
        <time>2018-12-28T21:20:16Z</time>
      </trkpt>
      <trkpt lat="35.817760" lon="-112.131970">
        <ele>1909.073</ele>
        <time>2018-12-28T21:20:36Z</time>
      </trkpt>
      <trkpt lat="35.817450" lon="-112.131950">
        <ele>1907.711</ele>
        <time>2018-12-28T21:20:56Z</time>
      </trkpt>
      <trkpt lat="35.817100" lon="-112.131930">
        <ele>1906.321</ele>
        <time>2018-12-28T21:21:16Z</time>
      </trkpt>
      <trkpt lat="35.816660" lon="-112.131900">
        <ele>1903.803</ele>
        <time>2018-12-28T21:21:36Z</time>
      </trkpt>
      <trkpt lat="35.816080" lon="-112.131860">
        <ele>1901.208</ele>
        <time>2018-12-28T21:21:56Z</time>
      </trkpt>
      <trkpt lat="35.815570" lon="-112.131820">
        <ele>1899.784</ele>
        <time>2018-12-28T21:22:16Z</time>
      </trkpt>
      <trkpt lat="35.815100" lon="-112.131790">
        <ele>1898.772</ele>
        <time>2018-12-28T21:22:36Z</time>
      </trkpt>
      <trkpt lat="35.814860" lon="-112.131770">
        <ele>1898.567</ele>
        <time>2018-12-28T21:22:56Z</time>
      </trkpt>
      <trkpt lat="35.814600" lon="-112.131750">
        <ele>1897.748</ele>
        <time>2018-12-28T21:23:16Z</time>
      </trkpt>
      <trkpt lat="35.814330" lon="-112.131740">
        <ele>1896.223</ele>
        <time>2018-12-28T21:23:36Z</time>
      </trkpt>
      <trkpt lat="35.814090" lon="-112.131720">
        <ele>1895.343</ele>
        <time>2018-12-28T21:23:56Z</time>
      </trkpt>
      <trkpt lat="35.813590" lon="-112.131690">
        <ele>1893.695</ele>
        <time>2018-12-28T21:24:16Z</time>
      </trkpt>
      <trkpt lat="35.813050" lon="-112.131650">
        <ele>1892.359</ele>
        <time>2018-12-28T21:24:36Z</time>
      </trkpt>
      <trkpt lat="35.812510" lon="-112.131600">
        <ele>1891.025</ele>
        <time>2018-12-28T21:24:56Z</time>
      </trkpt>
      <trkpt lat="35.812300" lon="-112.131580">
        <ele>1890.826</ele>
        <time>2018-12-28T21:25:16Z</time>
      </trkpt>
      <trkpt lat="35.812030" lon="-112.131560">
        <ele>1890.808</ele>
        <time>2018-12-28T21:25:36Z</time>
      </trkpt>
      <trkpt lat="35.811760" lon="-112.131540">
        <ele>1891.008</ele>
        <time>2018-12-28T21:25:56Z</time>
      </trkpt>
      <trkpt lat="35.811250" lon="-112.131500">
        <ele>1891.435</ele>
        <time>2018-12-28T21:26:16Z</time>
      </trkpt>
      <trkpt lat="35.810790" lon="-112.131460">
        <ele>1891.513</ele>
        <time>2018-12-28T21:26:36Z</time>
      </trkpt>
      <trkpt lat="35.810230" lon="-112.131430">
        <ele>1890.958</ele>
        <time>2018-12-28T21:26:56Z</time>
      </trkpt>
      <trkpt lat="35.809690" lon="-112.131390">
        <ele>1890.229</ele>
        <time>2018-12-28T21:27:16Z</time>
      </trkpt>
      <trkpt lat="35.809350" lon="-112.131360">
        <ele>1889.324</ele>
        <time>2018-12-28T21:27:36Z</time>
      </trkpt>
      <trkpt lat="35.808930" lon="-112.131330">
        <ele>1888.784</ele>
        <time>2018-12-28T21:27:56Z</time>
      </trkpt>
      <trkpt lat="35.808570" lon="-112.131310">
        <ele>1887.676</ele>
        <time>2018-12-28T21:28:16Z</time>
      </trkpt>
      <trkpt lat="35.808250" lon="-112.131290">
        <ele>1886.460</ele>
        <time>2018-12-28T21:28:36Z</time>
      </trkpt>
      <trkpt lat="35.807810" lon="-112.131260">
        <ele>1885.075</ele>
        <time>2018-12-28T21:28:56Z</time>
      </trkpt>
      <trkpt lat="35.807710" lon="-112.131250">
        <ele>1884.728</ele>
        <time>2018-12-28T21:29:16Z</time>
      </trkpt>
      <trkpt lat="35.807270" lon="-112.131220">
        <ele>1882.720</ele>
        <time>2018-12-28T21:29:36Z</time>
      </trkpt>
      <trkpt lat="35.806940" lon="-112.131200">
        <ele>1881.908</ele>
        <time>2018-12-28T21:29:56Z</time>
      </trkpt>
      <trkpt lat="35.806610" lon="-112.131170">
        <ele>1881.380</ele>
        <time>2018-12-28T21:30:16Z</time>
      </trkpt>
      <trkpt lat="35.806400" lon="-112.131160">
        <ele>1880.538</ele>
        <time>2018-12-28T21:30:36Z</time>
      </trkpt>
      <trkpt lat="35.806060" lon="-112.131130">
        <ele>1879.153</ele>
        <time>2018-12-28T21:30:56Z</time>
      </trkpt>
      <trkpt lat="35.805290" lon="-112.131080">
        <ele>1878.184</ele>
        <time>2018-12-28T21:31:16Z</time>
      </trkpt>
      <trkpt lat="35.805070" lon="-112.131060">
        <ele>1877.549</ele>
        <time>2018-12-28T21:31:36Z</time>
      </trkpt>
      <trkpt lat="35.804760" lon="-112.131040">
        <ele>1876.719</ele>
        <time>2018-12-28T21:31:56Z</time>
      </trkpt>
      <trkpt lat="35.804410" lon="-112.131020">
        <ele>1876.141</ele>
        <time>2018-12-28T21:32:16Z</time>
      </trkpt>
      <trkpt lat="35.804090" lon="-112.130990">
        <ele>1875.985</ele>
        <time>2018-12-28T21:32:36Z</time>
      </trkpt>
      <trkpt lat="35.803760" lon="-112.130970">
        <ele>1875.956</ele>
        <time>2018-12-28T21:32:56Z</time>
      </trkpt>
      <trkpt lat="35.803620" lon="-112.130960">
        <ele>1875.959</ele>
        <time>2018-12-28T21:33:16Z</time>
      </trkpt>
      <trkpt lat="35.802990" lon="-112.130910">
        <ele>1875.814</ele>
        <time>2018-12-28T21:33:36Z</time>
      </trkpt>
      <trkpt lat="35.802660" lon="-112.130890">
        <ele>1875.508</ele>
        <time>2018-12-28T21:33:56Z</time>
      </trkpt>
      <trkpt lat="35.802110" lon="-112.130850">
        <ele>1875.398</ele>
        <time>2018-12-28T21:34:16Z</time>
      </trkpt>
      <trkpt lat="35.801560" lon="-112.130810">
        <ele>1873.846</ele>
        <time>2018-12-28T21:34:36Z</time>
      </trkpt>
      <trkpt lat="35.800850" lon="-112.130760">
        <ele>1872.981</ele>
        <time>2018-12-28T21:34:56Z</time>
      </trkpt>
      <trkpt lat="35.800520" lon="-112.130740">
        <ele>1872.762</ele>
        <time>2018-12-28T21:35:16Z</time>
      </trkpt>
      <trkpt lat="35.800240" lon="-112.130720">
        <ele>1872.477</ele>
        <time>2018-12-28T21:35:36Z</time>
      </trkpt>
      <trkpt lat="35.799670" lon="-112.130680">
        <ele>1870.147</ele>
        <time>2018-12-28T21:35:56Z</time>
      </trkpt>
      <trkpt lat="35.799470" lon="-112.130660">
        <ele>1869.799</ele>
        <time>2018-12-28T21:36:16Z</time>
      </trkpt>
      <trkpt lat="35.799140" lon="-112.130640">
        <ele>1869.583</ele>
        <time>2018-12-28T21:36:36Z</time>
      </trkpt>
      <trkpt lat="35.798850" lon="-112.130620">
        <ele>1869.182</ele>
        <time>2018-12-28T21:36:56Z</time>
      </trkpt>
      <trkpt lat="35.798750" lon="-112.130610">
        <ele>1869.043</ele>
        <time>2018-12-28T21:37:16Z</time>
      </trkpt>
      <trkpt lat="35.798510" lon="-112.130600">
        <ele>1868.517</ele>
        <time>2018-12-28T21:37:36Z</time>
      </trkpt>
      <trkpt lat="35.798300" lon="-112.130580">
        <ele>1868.208</ele>
        <time>2018-12-28T21:37:56Z</time>
      </trkpt>
      <trkpt lat="35.798070" lon="-112.130570">
        <ele>1867.761</ele>
        <time>2018-12-28T21:38:16Z</time>
      </trkpt>
      <trkpt lat="35.797860" lon="-112.130550">
        <ele>1867.259</ele>
        <time>2018-12-28T21:38:36Z</time>
      </trkpt>
      <trkpt lat="35.797420" lon="-112.130530">
        <ele>1866.564</ele>
        <time>2018-12-28T21:38:56Z</time>
      </trkpt>
      <trkpt lat="35.796970" lon="-112.130490">
        <ele>1868.135</ele>
        <time>2018-12-28T21:39:16Z</time>
      </trkpt>
      <trkpt lat="35.796750" lon="-112.130470">
        <ele>1868.390</ele>
        <time>2018-12-28T21:39:36Z</time>
      </trkpt>
      <trkpt lat="35.796420" lon="-112.130450">
        <ele>1868.520</ele>
        <time>2018-12-28T21:39:56Z</time>
      </trkpt>
      <trkpt lat="35.796100" lon="-112.130420">
        <ele>1868.412</ele>
        <time>2018-12-28T21:40:16Z</time>
      </trkpt>
      <trkpt lat="35.795000" lon="-112.130350">
        <ele>1866.996</ele>
        <time>2018-12-28T21:40:36Z</time>
      </trkpt>
      <trkpt lat="35.794660" lon="-112.130320">
        <ele>1866.572</ele>
        <time>2018-12-28T21:40:56Z</time>
      </trkpt>
      <trkpt lat="35.794110" lon="-112.130290">
        <ele>1865.513</ele>
        <time>2018-12-28T21:41:16Z</time>
      </trkpt>
      <trkpt lat="35.793670" lon="-112.130260">
        <ele>1865.114</ele>
        <time>2018-12-28T21:41:36Z</time>
      </trkpt>
      <trkpt lat="35.793340" lon="-112.130230">
        <ele>1864.908</ele>
        <time>2018-12-28T21:41:56Z</time>
      </trkpt>
      <trkpt lat="35.793120" lon="-112.130220">
        <ele>1864.890</ele>
        <time>2018-12-28T21:42:16Z</time>
      </trkpt>
      <trkpt lat="35.792910" lon="-112.130200">
        <ele>1864.688</ele>
        <time>2018-12-28T21:42:36Z</time>
      </trkpt>
      <trkpt lat="35.792690" lon="-112.130190">
        <ele>1864.383</ele>
        <time>2018-12-28T21:42:56Z</time>
      </trkpt>
      <trkpt lat="35.792350" lon="-112.130160">
        <ele>1863.724</ele>
        <time>2018-12-28T21:43:16Z</time>
      </trkpt>
      <trkpt lat="35.792130" lon="-112.130150">
        <ele>1863.569</ele>
        <time>2018-12-28T21:43:36Z</time>
      </trkpt>
      <trkpt lat="35.791690" lon="-112.130120">
        <ele>1862.649</ele>
        <time>2018-12-28T21:43:56Z</time>
      </trkpt>
      <trkpt lat="35.790920" lon="-112.130070">
        <ele>1860.821</ele>
        <time>2018-12-28T21:44:16Z</time>
      </trkpt>
      <trkpt lat="35.790370" lon="-112.130030">
        <ele>1860.475</ele>
        <time>2018-12-28T21:44:36Z</time>
      </trkpt>
      <trkpt lat="35.790040" lon="-112.130000">
        <ele>1860.352</ele>
        <time>2018-12-28T21:44:56Z</time>
      </trkpt>
      <trkpt lat="35.789710" lon="-112.129980">
        <ele>1860.053</ele>
        <time>2018-12-28T21:45:16Z</time>
      </trkpt>
      <trkpt lat="35.789380" lon="-112.129960">
        <ele>1858.808</ele>
        <time>2018-12-28T21:45:36Z</time>
      </trkpt>
      <trkpt lat="35.789130" lon="-112.129940">
        <ele>1858.308</ele>
        <time>2018-12-28T21:45:56Z</time>
      </trkpt>
      <trkpt lat="35.788620" lon="-112.129900">
        <ele>1857.838</ele>
        <time>2018-12-28T21:46:16Z</time>
      </trkpt>
      <trkpt lat="35.788060" lon="-112.129860">
        <ele>1857.826</ele>
        <time>2018-12-28T21:46:36Z</time>
      </trkpt>
      <trkpt lat="35.787730" lon="-112.129840">
        <ele>1857.731</ele>
        <time>2018-12-28T21:46:56Z</time>
      </trkpt>
      <trkpt lat="35.787410" lon="-112.129820">
        <ele>1857.782</ele>
        <time>2018-12-28T21:47:16Z</time>
      </trkpt>
      <trkpt lat="35.786970" lon="-112.129780">
        <ele>1857.267</ele>
        <time>2018-12-28T21:47:36Z</time>
      </trkpt>
      <trkpt lat="35.786740" lon="-112.129770">
        <ele>1857.237</ele>
        <time>2018-12-28T21:47:56Z</time>
      </trkpt>
      <trkpt lat="35.786630" lon="-112.129760">
        <ele>1857.259</ele>
        <time>2018-12-28T21:48:16Z</time>
      </trkpt>
      <trkpt lat="35.786310" lon="-112.129740">
        <ele>1856.863</ele>
        <time>2018-12-28T21:48:36Z</time>
      </trkpt>
      <trkpt lat="35.786080" lon="-112.129720">
        <ele>1856.489</ele>
        <time>2018-12-28T21:48:56Z</time>
      </trkpt>
      <trkpt lat="35.785420" lon="-112.129680">
        <ele>1856.306</ele>
        <time>2018-12-28T21:49:16Z</time>
      </trkpt>
      <trkpt lat="35.785210" lon="-112.129660">
        <ele>1856.226</ele>
        <time>2018-12-28T21:49:36Z</time>
      </trkpt>
      <trkpt lat="35.785090" lon="-112.129650">
        <ele>1856.108</ele>
        <time>2018-12-28T21:49:56Z</time>
      </trkpt>
      <trkpt lat="35.784760" lon="-112.129630">
        <ele>1855.971</ele>
        <time>2018-12-28T21:50:16Z</time>
      </trkpt>
      <trkpt lat="35.784660" lon="-112.129620">
        <ele>1855.889</ele>
        <time>2018-12-28T21:50:36Z</time>
      </trkpt>
      <trkpt lat="35.784320" lon="-112.129600">
        <ele>1855.664</ele>
        <time>2018-12-28T21:50:56Z</time>
      </trkpt>
      <trkpt lat="35.784220" lon="-112.129590">
        <ele>1855.635</ele>
        <time>2018-12-28T21:51:16Z</time>
      </trkpt>
      <trkpt lat="35.784100" lon="-112.129580">
        <ele>1855.520</ele>
        <time>2018-12-28T21:51:36Z</time>
      </trkpt>
      <trkpt lat="35.783880" lon="-112.129570">
        <ele>1855.410</ele>
        <time>2018-12-28T21:51:56Z</time>
      </trkpt>
      <trkpt lat="35.783780" lon="-112.129560">
        <ele>1855.462</ele>
        <time>2018-12-28T21:52:16Z</time>
      </trkpt>
      <trkpt lat="35.783550" lon="-112.129540">
        <ele>1855.396</ele>
        <time>2018-12-28T21:52:36Z</time>
      </trkpt>
      <trkpt lat="35.783450" lon="-112.129540">
        <ele>1855.265</ele>
        <time>2018-12-28T21:52:56Z</time>
      </trkpt>
      <trkpt lat="35.783120" lon="-112.129510">
        <ele>1855.068</ele>
        <time>2018-12-28T21:53:16Z</time>
      </trkpt>
      <trkpt lat="35.782680" lon="-112.129480">
        <ele>1854.714</ele>
        <time>2018-12-28T21:53:36Z</time>
      </trkpt>
      <trkpt lat="35.782540" lon="-112.129470">
        <ele>1854.608</ele>
        <time>2018-12-28T21:53:56Z</time>
      </trkpt>
      <trkpt lat="35.782240" lon="-112.129450">
        <ele>1854.699</ele>
        <time>2018-12-28T21:54:16Z</time>
      </trkpt>
      <trkpt lat="35.781870" lon="-112.129430">
        <ele>1854.577</ele>
        <time>2018-12-28T21:54:36Z</time>
      </trkpt>
      <trkpt lat="35.781300" lon="-112.129390">
        <ele>1854.592</ele>
        <time>2018-12-28T21:54:56Z</time>
      </trkpt>
      <trkpt lat="35.781120" lon="-112.129370">
        <ele>1854.693</ele>
        <time>2018-12-28T21:55:16Z</time>
      </trkpt>
      <trkpt lat="35.780860" lon="-112.129350">
        <ele>1854.938</ele>
        <time>2018-12-28T21:55:36Z</time>
      </trkpt>
      <trkpt lat="35.780270" lon="-112.129310">
        <ele>1856.318</ele>
        <time>2018-12-28T21:55:56Z</time>
      </trkpt>
      <trkpt lat="35.780000" lon="-112.129290">
        <ele>1856.860</ele>
        <time>2018-12-28T21:56:16Z</time>
      </trkpt>
      <trkpt lat="35.779620" lon="-112.129270">
        <ele>1857.094</ele>
        <time>2018-12-28T21:56:36Z</time>
      </trkpt>
      <trkpt lat="35.779300" lon="-112.129250">
        <ele>1857.118</ele>
        <time>2018-12-28T21:56:56Z</time>
      </trkpt>
      <trkpt lat="35.779150" lon="-112.129240">
        <ele>1856.998</ele>
        <time>2018-12-28T21:57:16Z</time>
      </trkpt>
      <trkpt lat="35.778830" lon="-112.129240">
        <ele>1854.917</ele>
        <time>2018-12-28T21:57:36Z</time>
      </trkpt>
      <trkpt lat="35.778630" lon="-112.129230">
        <ele>1854.008</ele>
        <time>2018-12-28T21:57:56Z</time>
      </trkpt>
      <trkpt lat="35.778410" lon="-112.129230">
        <ele>1853.414</ele>
        <time>2018-12-28T21:58:16Z</time>
      </trkpt>
      <trkpt lat="35.778210" lon="-112.129230">
        <ele>1852.462</ele>
        <time>2018-12-28T21:58:36Z</time>
      </trkpt>
      <trkpt lat="35.777960" lon="-112.129240">
        <ele>1851.417</ele>
        <time>2018-12-28T21:58:56Z</time>
      </trkpt>
      <trkpt lat="35.777590" lon="-112.129240">
        <ele>1850.118</ele>
        <time>2018-12-28T21:59:16Z</time>
      </trkpt>
      <trkpt lat="35.777200" lon="-112.129250">
        <ele>1848.543</ele>
        <time>2018-12-28T21:59:36Z</time>
      </trkpt>
      <trkpt lat="35.776840" lon="-112.129270">
        <ele>1848.693</ele>
        <time>2018-12-28T21:59:56Z</time>
      </trkpt>
      <trkpt lat="35.776720" lon="-112.129280">
        <ele>1848.765</ele>
        <time>2018-12-28T22:00:16Z</time>
      </trkpt>
      <trkpt lat="35.776530" lon="-112.129290">
        <ele>1848.889</ele>
        <time>2018-12-28T22:00:36Z</time>
      </trkpt>
      <trkpt lat="35.776320" lon="-112.129300">
        <ele>1848.977</ele>
        <time>2018-12-28T22:00:56Z</time>
      </trkpt>
      <trkpt lat="35.776100" lon="-112.129320">
        <ele>1848.861</ele>
        <time>2018-12-28T22:01:16Z</time>
      </trkpt>
      <trkpt lat="35.775870" lon="-112.129340">
        <ele>1848.827</ele>
        <time>2018-12-28T22:01:36Z</time>
      </trkpt>
      <trkpt lat="35.775320" lon="-112.129390">
        <ele>1848.808</ele>
        <time>2018-12-28T22:01:56Z</time>
      </trkpt>
      <trkpt lat="35.775120" lon="-112.129410">
        <ele>1848.980</ele>
        <time>2018-12-28T22:02:16Z</time>
      </trkpt>
      <trkpt lat="35.774890" lon="-112.129440">
        <ele>1849.258</ele>
        <time>2018-12-28T22:02:36Z</time>
      </trkpt>
      <trkpt lat="35.774350" lon="-112.129500">
        <ele>1849.893</ele>
        <time>2018-12-28T22:02:56Z</time>
      </trkpt>
      <trkpt lat="35.774180" lon="-112.129520">
        <ele>1850.094</ele>
        <time>2018-12-28T22:03:16Z</time>
      </trkpt>
      <trkpt lat="35.773690" lon="-112.129580">
        <ele>1850.829</ele>
        <time>2018-12-28T22:03:36Z</time>
      </trkpt>
      <trkpt lat="35.773460" lon="-112.129610">
        <ele>1850.929</ele>
        <time>2018-12-28T22:03:56Z</time>
      </trkpt>
      <trkpt lat="35.773350" lon="-112.129620">
        <ele>1851.181</ele>
        <time>2018-12-28T22:04:16Z</time>
      </trkpt>
      <trkpt lat="35.773140" lon="-112.129650">
        <ele>1851.415</ele>
        <time>2018-12-28T22:04:36Z</time>
      </trkpt>
      <trkpt lat="35.773010" lon="-112.129660">
        <ele>1851.588</ele>
        <time>2018-12-28T22:04:56Z</time>
      </trkpt>
      <trkpt lat="35.772810" lon="-112.129690">
        <ele>1851.724</ele>
        <time>2018-12-28T22:05:16Z</time>
      </trkpt>
      <trkpt lat="35.772690" lon="-112.129700">
        <ele>1851.926</ele>
        <time>2018-12-28T22:05:36Z</time>
      </trkpt>
      <trkpt lat="35.772250" lon="-112.129750">
        <ele>1852.908</ele>
        <time>2018-12-28T22:05:56Z</time>
      </trkpt>
      <trkpt lat="35.771980" lon="-112.129780">
        <ele>1853.551</ele>
        <time>2018-12-28T22:06:16Z</time>
      </trkpt>
      <trkpt lat="35.771630" lon="-112.129820">
        <ele>1854.269</ele>
        <time>2018-12-28T22:06:36Z</time>
      </trkpt>
      <trkpt lat="35.771380" lon="-112.129850">
        <ele>1854.654</ele>
        <time>2018-12-28T22:06:56Z</time>
      </trkpt>
      <trkpt lat="35.771180" lon="-112.129880">
        <ele>1854.995</ele>
        <time>2018-12-28T22:07:16Z</time>
      </trkpt>
      <trkpt lat="35.771010" lon="-112.129890">
        <ele>1855.270</ele>
        <time>2018-12-28T22:07:36Z</time>
      </trkpt>
      <trkpt lat="35.770650" lon="-112.129940">
        <ele>1855.590</ele>
        <time>2018-12-28T22:07:56Z</time>
      </trkpt>
      <trkpt lat="35.770000" lon="-112.130000">
        <ele>1856.352</ele>
        <time>2018-12-28T22:08:16Z</time>
      </trkpt>
      <trkpt lat="35.769780" lon="-112.130030">
        <ele>1856.676</ele>
        <time>2018-12-28T22:08:36Z</time>
      </trkpt>
      <trkpt lat="35.769530" lon="-112.130060">
        <ele>1857.058</ele>
        <time>2018-12-28T22:08:56Z</time>
      </trkpt>
      <trkpt lat="35.769480" lon="-112.130100">
        <ele>1857.052</ele>
        <time>2018-12-28T22:09:16Z</time>
      </trkpt>
      <trkpt lat="35.769470" lon="-112.130110">
        <ele>1857.017</ele>
        <time>2018-12-28T22:09:36Z</time>
      </trkpt>
      <trkpt lat="35.768400" lon="-112.130230">
        <ele>1858.308</ele>
        <time>2018-12-28T22:09:56Z</time>
      </trkpt>
      <trkpt lat="35.767350" lon="-112.130350">
        <ele>1860.748</ele>
        <time>2018-12-28T22:10:16Z</time>
      </trkpt>
      <trkpt lat="35.766200" lon="-112.130480">
        <ele>1863.226</ele>
        <time>2018-12-28T22:10:36Z</time>
      </trkpt>
      <trkpt lat="35.764520" lon="-112.130690">
        <ele>1864.151</ele>
        <time>2018-12-28T22:10:56Z</time>
      </trkpt>
      <trkpt lat="35.764090" lon="-112.130730">
        <ele>1864.182</ele>
        <time>2018-12-28T22:11:16Z</time>
      </trkpt>
      <trkpt lat="35.763960" lon="-112.130750">
        <ele>1864.167</ele>
        <time>2018-12-28T22:11:36Z</time>
      </trkpt>
      <trkpt lat="35.763710" lon="-112.130780">
        <ele>1864.277</ele>
        <time>2018-12-28T22:11:56Z</time>
      </trkpt>
      <trkpt lat="35.763700" lon="-112.130780">
        <ele>1864.229</ele>
        <time>2018-12-28T22:12:16Z</time>
      </trkpt>
      <trkpt lat="35.763690" lon="-112.130770">
        <ele>1864.243</ele>
        <time>2018-12-28T22:12:36Z</time>
      </trkpt>
      <trkpt lat="35.763630" lon="-112.130750">
        <ele>1864.354</ele>
        <time>2018-12-28T22:12:56Z</time>
      </trkpt>
      <trkpt lat="35.762920" lon="-112.130810">
        <ele>1864.756</ele>
        <time>2018-12-28T22:13:16Z</time>
      </trkpt>
      <trkpt lat="35.762540" lon="-112.130830">
        <ele>1864.711</ele>
        <time>2018-12-28T22:13:36Z</time>
      </trkpt>
      <trkpt lat="35.761600" lon="-112.130880">
        <ele>1863.208</ele>
        <time>2018-12-28T22:13:56Z</time>
      </trkpt>
      <trkpt lat="35.761040" lon="-112.130890">
        <ele>1862.338</ele>
        <time>2018-12-28T22:14:16Z</time>
      </trkpt>
      <trkpt lat="35.760570" lon="-112.130890">
        <ele>1861.756</ele>
        <time>2018-12-28T22:14:36Z</time>
      </trkpt>
      <trkpt lat="35.759670" lon="-112.130890">
        <ele>1862.641</ele>
        <time>2018-12-28T22:14:56Z</time>
      </trkpt>
      <trkpt lat="35.759020" lon="-112.130900">
        <ele>1863.522</ele>
        <time>2018-12-28T22:15:16Z</time>
      </trkpt>
      <trkpt lat="35.758330" lon="-112.130900">
        <ele>1863.917</ele>
        <time>2018-12-28T22:15:36Z</time>
      </trkpt>
      <trkpt lat="35.756030" lon="-112.130920">
        <ele>1863.547</ele>
        <time>2018-12-28T22:15:56Z</time>
      </trkpt>
      <trkpt lat="35.755810" lon="-112.130920">
        <ele>1863.419</ele>
        <time>2018-12-28T22:16:16Z</time>
      </trkpt>
      <trkpt lat="35.755280" lon="-112.130920">
        <ele>1863.253</ele>
        <time>2018-12-28T22:16:36Z</time>
      </trkpt>
      <trkpt lat="35.755040" lon="-112.130920">
        <ele>1863.124</ele>
        <time>2018-12-28T22:16:56Z</time>
      </trkpt>
      <trkpt lat="35.754690" lon="-112.130930">
        <ele>1862.404</ele>
        <time>2018-12-28T22:17:16Z</time>
      </trkpt>
      <trkpt lat="35.754160" lon="-112.130930">
        <ele>1861.214</ele>
        <time>2018-12-28T22:17:36Z</time>
      </trkpt>
      <trkpt lat="35.753510" lon="-112.130930">
        <ele>1859.808</ele>
        <time>2018-12-28T22:17:56Z</time>
      </trkpt>
      <trkpt lat="35.752530" lon="-112.130940">
        <ele>1856.285</ele>
        <time>2018-12-28T22:18:16Z</time>
      </trkpt>
      <trkpt lat="35.751750" lon="-112.130950">
        <ele>1853.543</ele>
        <time>2018-12-28T22:18:36Z</time>
      </trkpt>
      <trkpt lat="35.751090" lon="-112.130960">
        <ele>1851.068</ele>
        <time>2018-12-28T22:18:56Z</time>
      </trkpt>
      <trkpt lat="35.750430" lon="-112.130960">
        <ele>1852.829</ele>
        <time>2018-12-28T22:19:16Z</time>
      </trkpt>
      <trkpt lat="35.749780" lon="-112.130960">
        <ele>1852.864</ele>
        <time>2018-12-28T22:19:36Z</time>
      </trkpt>
      <trkpt lat="35.749400" lon="-112.130960">
        <ele>1852.624</ele>
        <time>2018-12-28T22:19:56Z</time>
      </trkpt>
      <trkpt lat="35.748740" lon="-112.130960">
        <ele>1852.876</ele>
        <time>2018-12-28T22:20:16Z</time>
      </trkpt>
      <trkpt lat="35.748130" lon="-112.130970">
        <ele>1853.150</ele>
        <time>2018-12-28T22:20:36Z</time>
      </trkpt>
      <trkpt lat="35.747600" lon="-112.130980">
        <ele>1853.285</ele>
        <time>2018-12-28T22:20:56Z</time>
      </trkpt>
      <trkpt lat="35.746140" lon="-112.130990">
        <ele>1852.089</ele>
        <time>2018-12-28T22:21:16Z</time>
      </trkpt>
      <trkpt lat="35.745400" lon="-112.131010">
        <ele>1850.617</ele>
        <time>2018-12-28T22:21:36Z</time>
      </trkpt>
      <trkpt lat="35.744430" lon="-112.131020">
        <ele>1849.508</ele>
        <time>2018-12-28T22:21:56Z</time>
      </trkpt>
      <trkpt lat="35.743750" lon="-112.131030">
        <ele>1848.341</ele>
        <time>2018-12-28T22:22:16Z</time>
      </trkpt>
      <trkpt lat="35.743320" lon="-112.131030">
        <ele>1847.939</ele>
        <time>2018-12-28T22:22:36Z</time>
      </trkpt>
      <trkpt lat="35.743100" lon="-112.131030">
        <ele>1847.864</ele>
        <time>2018-12-28T22:22:56Z</time>
      </trkpt>
      <trkpt lat="35.742540" lon="-112.131040">
        <ele>1847.665</ele>
        <time>2018-12-28T22:23:16Z</time>
      </trkpt>
      <trkpt lat="35.741990" lon="-112.131040">
        <ele>1847.160</ele>
        <time>2018-12-28T22:23:36Z</time>
      </trkpt>
      <trkpt lat="35.741660" lon="-112.131040">
        <ele>1846.550</ele>
        <time>2018-12-28T22:23:56Z</time>
      </trkpt>
      <trkpt lat="35.741450" lon="-112.131040">
        <ele>1846.182</ele>
        <time>2018-12-28T22:24:16Z</time>
      </trkpt>
      <trkpt lat="35.741330" lon="-112.131040">
        <ele>1845.866</ele>
        <time>2018-12-28T22:24:36Z</time>
      </trkpt>
      <trkpt lat="35.741000" lon="-112.131050">
        <ele>1845.197</ele>
        <time>2018-12-28T22:24:56Z</time>
      </trkpt>
      <trkpt lat="35.740780" lon="-112.131050">
        <ele>1844.423</ele>
        <time>2018-12-28T22:25:16Z</time>
      </trkpt>
      <trkpt lat="35.740450" lon="-112.131050">
        <ele>1843.525</ele>
        <time>2018-12-28T22:25:36Z</time>
      </trkpt>
      <trkpt lat="35.739580" lon="-112.131060">
        <ele>1841.908</ele>
        <time>2018-12-28T22:25:56Z</time>
      </trkpt>
      <trkpt lat="35.739080" lon="-112.131060">
        <ele>1841.872</ele>
        <time>2018-12-28T22:26:16Z</time>
      </trkpt>
      <trkpt lat="35.738060" lon="-112.131070">
        <ele>1838.870</ele>
        <time>2018-12-28T22:26:36Z</time>
      </trkpt>
      <trkpt lat="35.737700" lon="-112.131070">
        <ele>1837.795</ele>
        <time>2018-12-28T22:26:56Z</time>
      </trkpt>
      <trkpt lat="35.737370" lon="-112.131070">
        <ele>1837.376</ele>
        <time>2018-12-28T22:27:16Z</time>
      </trkpt>
      <trkpt lat="35.736940" lon="-112.131070">
        <ele>1837.661</ele>
        <time>2018-12-28T22:27:36Z</time>
      </trkpt>
      <trkpt lat="35.736490" lon="-112.131070">
        <ele>1837.371</ele>
        <time>2018-12-28T22:27:56Z</time>
      </trkpt>
      <trkpt lat="35.736260" lon="-112.131080">
        <ele>1836.813</ele>
        <time>2018-12-28T22:28:16Z</time>
      </trkpt>
      <trkpt lat="35.736050" lon="-112.131080">
        <ele>1836.147</ele>
        <time>2018-12-28T22:28:36Z</time>
      </trkpt>
      <trkpt lat="35.735840" lon="-112.131080">
        <ele>1835.828</ele>
        <time>2018-12-28T22:28:56Z</time>
      </trkpt>
      <trkpt lat="35.735590" lon="-112.131080">
        <ele>1835.589</ele>
        <time>2018-12-28T22:29:16Z</time>
      </trkpt>
      <trkpt lat="35.735370" lon="-112.131090">
        <ele>1834.817</ele>
        <time>2018-12-28T22:29:36Z</time>
      </trkpt>
      <trkpt lat="35.735170" lon="-112.131090">
        <ele>1833.008</ele>
        <time>2018-12-28T22:29:56Z</time>
      </trkpt>
      <trkpt lat="35.734630" lon="-112.131100">
        <ele>1830.075</ele>
        <time>2018-12-28T22:30:16Z</time>
      </trkpt>
      <trkpt lat="35.734080" lon="-112.131100">
        <ele>1830.273</ele>
        <time>2018-12-28T22:30:36Z</time>
      </trkpt>
      <trkpt lat="35.733750" lon="-112.131100">
        <ele>1830.588</ele>
        <time>2018-12-28T22:30:56Z</time>
      </trkpt>
      <trkpt lat="35.733290" lon="-112.131100">
        <ele>1830.669</ele>
        <time>2018-12-28T22:31:16Z</time>
      </trkpt>
      <trkpt lat="35.733150" lon="-112.131100">
        <ele>1830.624</ele>
        <time>2018-12-28T22:31:36Z</time>
      </trkpt>
      <trkpt lat="35.732480" lon="-112.131100">
        <ele>1833.094</ele>
        <time>2018-12-28T22:31:56Z</time>
      </trkpt>
      <trkpt lat="35.732380" lon="-112.131120">
        <ele>1833.496</ele>
        <time>2018-12-28T22:32:16Z</time>
      </trkpt>
      <trkpt lat="35.732370" lon="-112.131120">
        <ele>1833.430</ele>
        <time>2018-12-28T22:32:36Z</time>
      </trkpt>
      <trkpt lat="35.731950" lon="-112.131120">
        <ele>1834.034</ele>
        <time>2018-12-28T22:32:56Z</time>
      </trkpt>
      <trkpt lat="35.731220" lon="-112.131140">
        <ele>1833.255</ele>
        <time>2018-12-28T22:33:16Z</time>
      </trkpt>
      <trkpt lat="35.730160" lon="-112.131150">
        <ele>1831.010</ele>
        <time>2018-12-28T22:33:36Z</time>
      </trkpt>
      <trkpt lat="35.729470" lon="-112.131150">
        <ele>1829.708</ele>
        <time>2018-12-28T22:33:56Z</time>
      </trkpt>
      <trkpt lat="35.729270" lon="-112.131150">
        <ele>1829.596</ele>
        <time>2018-12-28T22:34:16Z</time>
      </trkpt>
      <trkpt lat="35.729030" lon="-112.131150">
        <ele>1829.654</ele>
        <time>2018-12-28T22:34:36Z</time>
      </trkpt>
      <trkpt lat="35.729020" lon="-112.131150">
        <ele>1829.639</ele>
        <time>2018-12-28T22:34:56Z</time>
      </trkpt>
      <trkpt lat="35.728920" lon="-112.131120">
        <ele>1829.680</ele>
        <time>2018-12-28T22:35:16Z</time>
      </trkpt>
      <trkpt lat="35.728690" lon="-112.131130">
        <ele>1829.715</ele>
        <time>2018-12-28T22:35:36Z</time>
      </trkpt>
      <trkpt lat="35.728040" lon="-112.131130">
        <ele>1830.135</ele>
        <time>2018-12-28T22:35:56Z</time>
      </trkpt>
      <trkpt lat="35.727080" lon="-112.131140">
        <ele>1830.747</ele>
        <time>2018-12-28T22:36:16Z</time>
      </trkpt>
      <trkpt lat="35.726530" lon="-112.131140">
        <ele>1830.821</ele>
        <time>2018-12-28T22:36:36Z</time>
      </trkpt>
      <trkpt lat="35.725650" lon="-112.131150">
        <ele>1831.378</ele>
        <time>2018-12-28T22:36:56Z</time>
      </trkpt>
      <trkpt lat="35.725100" lon="-112.131160">
        <ele>1831.333</ele>
        <time>2018-12-28T22:37:16Z</time>
      </trkpt>
      <trkpt lat="35.724770" lon="-112.131160">
        <ele>1831.326</ele>
        <time>2018-12-28T22:37:36Z</time>
      </trkpt>
      <trkpt lat="35.724610" lon="-112.131160">
        <ele>1831.308</ele>
        <time>2018-12-28T22:37:56Z</time>
      </trkpt>
      <trkpt lat="35.723910" lon="-112.131160">
        <ele>1831.540</ele>
        <time>2018-12-28T22:38:16Z</time>
      </trkpt>
      <trkpt lat="35.723450" lon="-112.131170">
        <ele>1831.238</ele>
        <time>2018-12-28T22:38:36Z</time>
      </trkpt>
      <trkpt lat="35.723020" lon="-112.131170">
        <ele>1831.133</ele>
        <time>2018-12-28T22:38:56Z</time>
      </trkpt>
      <trkpt lat="35.722820" lon="-112.131170">
        <ele>1831.064</ele>
        <time>2018-12-28T22:39:16Z</time>
      </trkpt>
      <trkpt lat="35.722680" lon="-112.131170">
        <ele>1830.999</ele>
        <time>2018-12-28T22:39:36Z</time>
      </trkpt>
      <trkpt lat="35.722350" lon="-112.131180">
        <ele>1830.469</ele>
        <time>2018-12-28T22:39:56Z</time>
      </trkpt>
      <trkpt lat="35.722020" lon="-112.131180">
        <ele>1829.811</ele>
        <time>2018-12-28T22:40:16Z</time>
      </trkpt>
      <trkpt lat="35.721710" lon="-112.131180">
        <ele>1829.785</ele>
        <time>2018-12-28T22:40:36Z</time>
      </trkpt>
      <trkpt lat="35.721470" lon="-112.131180">
        <ele>1829.627</ele>
        <time>2018-12-28T22:40:56Z</time>
      </trkpt>
      <trkpt lat="35.721120" lon="-112.131180">
        <ele>1829.668</ele>
        <time>2018-12-28T22:41:16Z</time>
      </trkpt>
      <trkpt lat="35.719930" lon="-112.131190">
        <ele>1830.114</ele>
        <time>2018-12-28T22:41:36Z</time>
      </trkpt>
      <trkpt lat="35.719700" lon="-112.131190">
        <ele>1829.708</ele>
        <time>2018-12-28T22:41:56Z</time>
      </trkpt>
      <trkpt lat="35.719490" lon="-112.131190">
        <ele>1829.495</ele>
        <time>2018-12-28T22:42:16Z</time>
      </trkpt>
      <trkpt lat="35.719270" lon="-112.131190">
        <ele>1829.373</ele>
        <time>2018-12-28T22:42:36Z</time>
      </trkpt>
      <trkpt lat="35.719060" lon="-112.131190">
        <ele>1829.848</ele>
        <time>2018-12-28T22:42:56Z</time>
      </trkpt>
      <trkpt lat="35.718830" lon="-112.131190">
        <ele>1830.489</ele>
        <time>2018-12-28T22:43:16Z</time>
      </trkpt>
      <trkpt lat="35.718610" lon="-112.131190">
        <ele>1830.524</ele>
        <time>2018-12-28T22:43:36Z</time>
      </trkpt>
      <trkpt lat="35.718290" lon="-112.131200">
        <ele>1829.984</ele>
        <time>2018-12-28T22:43:56Z</time>
      </trkpt>
      <trkpt lat="35.718060" lon="-112.131200">
        <ele>1829.646</ele>
        <time>2018-12-28T22:44:16Z</time>
      </trkpt>
      <trkpt lat="35.717830" lon="-112.131200">
        <ele>1829.620</ele>
        <time>2018-12-28T22:44:36Z</time>
      </trkpt>
      <trkpt lat="35.717510" lon="-112.131200">
        <ele>1829.283</ele>
        <time>2018-12-28T22:44:56Z</time>
      </trkpt>
      <trkpt lat="35.717290" lon="-112.131200">
        <ele>1828.725</ele>
        <time>2018-12-28T22:45:16Z</time>
      </trkpt>
      <trkpt lat="35.716960" lon="-112.131200">
        <ele>1829.017</ele>
        <time>2018-12-28T22:45:36Z</time>
      </trkpt>
      <trkpt lat="35.716630" lon="-112.131200">
        <ele>1829.608</ele>
        <time>2018-12-28T22:45:56Z</time>
      </trkpt>
      <trkpt lat="35.716360" lon="-112.131200">
        <ele>1829.591</ele>
        <time>2018-12-28T22:46:16Z</time>
      </trkpt>
      <trkpt lat="35.715990" lon="-112.131210">
        <ele>1828.259</ele>
        <time>2018-12-28T22:46:36Z</time>
      </trkpt>
      <trkpt lat="35.715660" lon="-112.131220">
        <ele>1825.084</ele>
        <time>2018-12-28T22:46:56Z</time>
      </trkpt>
      <trkpt lat="35.715530" lon="-112.131220">
        <ele>1824.495</ele>
        <time>2018-12-28T22:47:16Z</time>
      </trkpt>
      <trkpt lat="35.715320" lon="-112.131230">
        <ele>1823.660</ele>
        <time>2018-12-28T22:47:36Z</time>
      </trkpt>
      <trkpt lat="35.715130" lon="-112.131230">
        <ele>1823.390</ele>
        <time>2018-12-28T22:47:56Z</time>
      </trkpt>
      <trkpt lat="35.715080" lon="-112.131230">
        <ele>1823.322</ele>
        <time>2018-12-28T22:48:16Z</time>
      </trkpt>
      <trkpt lat="35.714770" lon="-112.131230">
        <ele>1823.526</ele>
        <time>2018-12-28T22:48:36Z</time>
      </trkpt>
      <trkpt lat="35.714530" lon="-112.131230">
        <ele>1823.619</ele>
        <time>2018-12-28T22:48:56Z</time>
      </trkpt>
      <trkpt lat="35.714320" lon="-112.131230">
        <ele>1823.709</ele>
        <time>2018-12-28T22:49:16Z</time>
      </trkpt>
      <trkpt lat="35.714010" lon="-112.131240">
        <ele>1824.019</ele>
        <time>2018-12-28T22:49:36Z</time>
      </trkpt>
      <trkpt lat="35.713710" lon="-112.131240">
        <ele>1824.108</ele>
        <time>2018-12-28T22:49:56Z</time>
      </trkpt>
      <trkpt lat="35.713340" lon="-112.131250">
        <ele>1824.194</ele>
        <time>2018-12-28T22:50:16Z</time>
      </trkpt>
      <trkpt lat="35.713240" lon="-112.131260">
        <ele>1824.232</ele>
        <time>2018-12-28T22:50:36Z</time>
      </trkpt>
      <trkpt lat="35.713160" lon="-112.131260">
        <ele>1824.257</ele>
        <time>2018-12-28T22:50:56Z</time>
      </trkpt>
      <trkpt lat="35.713010" lon="-112.131270">
        <ele>1824.318</ele>
        <time>2018-12-28T22:51:16Z</time>
      </trkpt>
      <trkpt lat="35.712800" lon="-112.131280">
        <ele>1824.553</ele>
        <time>2018-12-28T22:51:36Z</time>
      </trkpt>
      <trkpt lat="35.712580" lon="-112.131290">
        <ele>1824.623</ele>
        <time>2018-12-28T22:51:56Z</time>
      </trkpt>
      <trkpt lat="35.712200" lon="-112.131320">
        <ele>1824.745</ele>
        <time>2018-12-28T22:52:16Z</time>
      </trkpt>
      <trkpt lat="35.711660" lon="-112.131370">
        <ele>1824.559</ele>
        <time>2018-12-28T22:52:36Z</time>
      </trkpt>
      <trkpt lat="35.711420" lon="-112.131390">
        <ele>1824.367</ele>
        <time>2018-12-28T22:52:56Z</time>
      </trkpt>
      <trkpt lat="35.711200" lon="-112.131420">
        <ele>1823.981</ele>
        <time>2018-12-28T22:53:16Z</time>
      </trkpt>
      <trkpt lat="35.710930" lon="-112.131460">
        <ele>1823.619</ele>
        <time>2018-12-28T22:53:36Z</time>
      </trkpt>
      <trkpt lat="35.710590" lon="-112.131500">
        <ele>1823.408</ele>
        <time>2018-12-28T22:53:56Z</time>
      </trkpt>
      <trkpt lat="35.709290" lon="-112.131670">
        <ele>1821.769</ele>
        <time>2018-12-28T22:54:16Z</time>
      </trkpt>
      <trkpt lat="35.709050" lon="-112.131710">
        <ele>1821.247</ele>
        <time>2018-12-28T22:54:36Z</time>
      </trkpt>
      <trkpt lat="35.708840" lon="-112.131740">
        <ele>1820.692</ele>
        <time>2018-12-28T22:54:56Z</time>
      </trkpt>
      <trkpt lat="35.708500" lon="-112.131790">
        <ele>1819.663</ele>
        <time>2018-12-28T22:55:16Z</time>
      </trkpt>
      <trkpt lat="35.708060" lon="-112.131850">
        <ele>1818.578</ele>
        <time>2018-12-28T22:55:36Z</time>
      </trkpt>
      <trkpt lat="35.707630" lon="-112.131900">
        <ele>1817.948</ele>
        <time>2018-12-28T22:55:56Z</time>
      </trkpt>
      <trkpt lat="35.707340" lon="-112.131940">
        <ele>1817.740</ele>
        <time>2018-12-28T22:56:16Z</time>
      </trkpt>
      <trkpt lat="35.706740" lon="-112.132020">
        <ele>1817.414</ele>
        <time>2018-12-28T22:56:36Z</time>
      </trkpt>
      <trkpt lat="35.706550" lon="-112.132050">
        <ele>1817.327</ele>
        <time>2018-12-28T22:56:56Z</time>
      </trkpt>
      <trkpt lat="35.706530" lon="-112.132070">
        <ele>1817.368</ele>
        <time>2018-12-28T22:57:16Z</time>
      </trkpt>
      <trkpt lat="35.706520" lon="-112.132070">
        <ele>1817.314</ele>
        <time>2018-12-28T22:57:36Z</time>
      </trkpt>
      <trkpt lat="35.706440" lon="-112.132080">
        <ele>1817.108</ele>
        <time>2018-12-28T22:57:56Z</time>
      </trkpt>
      <trkpt lat="35.706420" lon="-112.132090">
        <ele>1817.095</ele>
        <time>2018-12-28T22:58:16Z</time>
      </trkpt>
      <trkpt lat="35.706250" lon="-112.132110">
        <ele>1816.543</ele>
        <time>2018-12-28T22:58:36Z</time>
      </trkpt>
      <trkpt lat="35.706070" lon="-112.132140">
        <ele>1816.248</ele>
        <time>2018-12-28T22:58:56Z</time>
      </trkpt>
      <trkpt lat="35.705290" lon="-112.132280">
        <ele>1815.559</ele>
        <time>2018-12-28T22:59:16Z</time>
      </trkpt>
      <trkpt lat="35.704910" lon="-112.132330">
        <ele>1815.394</ele>
        <time>2018-12-28T22:59:36Z</time>
      </trkpt>
      <trkpt lat="35.703970" lon="-112.132460">
        <ele>1815.484</ele>
        <time>2018-12-28T22:59:56Z</time>
      </trkpt>
      <trkpt lat="35.703720" lon="-112.132490">
        <ele>1815.556</ele>
        <time>2018-12-28T23:00:16Z</time>
      </trkpt>
      <trkpt lat="35.703300" lon="-112.132540">
        <ele>1815.970</ele>
        <time>2018-12-28T23:00:36Z</time>
      </trkpt>
      <trkpt lat="35.702840" lon="-112.132600">
        <ele>1816.151</ele>
        <time>2018-12-28T23:00:56Z</time>
      </trkpt>
      <trkpt lat="35.702720" lon="-112.132610">
        <ele>1816.201</ele>
        <time>2018-12-28T23:01:16Z</time>
      </trkpt>
      <trkpt lat="35.702660" lon="-112.132600">
        <ele>1816.211</ele>
        <time>2018-12-28T23:01:36Z</time>
      </trkpt>
      <trkpt lat="35.702430" lon="-112.132630">
        <ele>1816.508</ele>
        <time>2018-12-28T23:01:56Z</time>
      </trkpt>
      <trkpt lat="35.702250" lon="-112.132650">
        <ele>1816.668</ele>
        <time>2018-12-28T23:02:16Z</time>
      </trkpt>
      <trkpt lat="35.702000" lon="-112.132680">
        <ele>1816.876</ele>
        <time>2018-12-28T23:02:36Z</time>
      </trkpt>
      <trkpt lat="35.701770" lon="-112.132710">
        <ele>1816.961</ele>
        <time>2018-12-28T23:02:56Z</time>
      </trkpt>
      <trkpt lat="35.701480" lon="-112.132750">
        <ele>1816.962</ele>
        <time>2018-12-28T23:03:16Z</time>
      </trkpt>
      <trkpt lat="35.701360" lon="-112.132760">
        <ele>1816.937</ele>
        <time>2018-12-28T23:03:36Z</time>
      </trkpt>
      <trkpt lat="35.701250" lon="-112.132780">
        <ele>1816.967</ele>
        <time>2018-12-28T23:03:56Z</time>
      </trkpt>
      <trkpt lat="35.701150" lon="-112.132790">
        <ele>1817.049</ele>
        <time>2018-12-28T23:04:16Z</time>
      </trkpt>
      <trkpt lat="35.701020" lon="-112.132810">
        <ele>1817.063</ele>
        <time>2018-12-28T23:04:36Z</time>
      </trkpt>
      <trkpt lat="35.700800" lon="-112.132840">
        <ele>1817.094</ele>
        <time>2018-12-28T23:04:56Z</time>
      </trkpt>
      <trkpt lat="35.700480" lon="-112.132880">
        <ele>1816.857</ele>
        <time>2018-12-28T23:05:16Z</time>
      </trkpt>
      <trkpt lat="35.700260" lon="-112.132910">
        <ele>1816.722</ele>
        <time>2018-12-28T23:05:36Z</time>
      </trkpt>
      <trkpt lat="35.699940" lon="-112.132950">
        <ele>1816.508</ele>
        <time>2018-12-28T23:05:56Z</time>
      </trkpt>
      <trkpt lat="35.699610" lon="-112.132990">
        <ele>1816.322</ele>
        <time>2018-12-28T23:06:16Z</time>
      </trkpt>
      <trkpt lat="35.699390" lon="-112.133020">
        <ele>1816.260</ele>
        <time>2018-12-28T23:06:36Z</time>
      </trkpt>
      <trkpt lat="35.698960" lon="-112.133080">
        <ele>1816.185</ele>
        <time>2018-12-28T23:06:56Z</time>
      </trkpt>
      <trkpt lat="35.698290" lon="-112.133170">
        <ele>1815.916</ele>
        <time>2018-12-28T23:07:16Z</time>
      </trkpt>
      <trkpt lat="35.698090" lon="-112.133190">
        <ele>1816.091</ele>
        <time>2018-12-28T23:07:36Z</time>
      </trkpt>
      <trkpt lat="35.698010" lon="-112.133210">
        <ele>1815.911</ele>
        <time>2018-12-28T23:07:56Z</time>
      </trkpt>
      <trkpt lat="35.697770" lon="-112.133240">
        <ele>1816.013</ele>
        <time>2018-12-28T23:08:16Z</time>
      </trkpt>
      <trkpt lat="35.697550" lon="-112.133270">
        <ele>1816.057</ele>
        <time>2018-12-28T23:08:36Z</time>
      </trkpt>
      <trkpt lat="35.697330" lon="-112.133300">
        <ele>1816.068</ele>
        <time>2018-12-28T23:08:56Z</time>
      </trkpt>
      <trkpt lat="35.697120" lon="-112.133330">
        <ele>1815.942</ele>
        <time>2018-12-28T23:09:16Z</time>
      </trkpt>
      <trkpt lat="35.696790" lon="-112.133370">
        <ele>1815.726</ele>
        <time>2018-12-28T23:09:36Z</time>
      </trkpt>
      <trkpt lat="35.696670" lon="-112.133390">
        <ele>1815.608</ele>
        <time>2018-12-28T23:09:56Z</time>
      </trkpt>
      <trkpt lat="35.696560" lon="-112.133400">
        <ele>1815.619</ele>
        <time>2018-12-28T23:10:16Z</time>
      </trkpt>
      <trkpt lat="35.696470" lon="-112.133420">
        <ele>1815.527</ele>
        <time>2018-12-28T23:10:36Z</time>
      </trkpt>
      <trkpt lat="35.696370" lon="-112.133430">
        <ele>1815.562</ele>
        <time>2018-12-28T23:10:56Z</time>
      </trkpt>
      <trkpt lat="35.696240" lon="-112.133450">
        <ele>1815.483</ele>
        <time>2018-12-28T23:11:16Z</time>
      </trkpt>
      <trkpt lat="35.696130" lon="-112.133470">
        <ele>1815.468</ele>
        <time>2018-12-28T23:11:36Z</time>
      </trkpt>
      <trkpt lat="35.696020" lon="-112.133480">
        <ele>1815.498</ele>
        <time>2018-12-28T23:11:56Z</time>
      </trkpt>
      <trkpt lat="35.695910" lon="-112.133500">
        <ele>1815.360</ele>
        <time>2018-12-28T23:12:16Z</time>
      </trkpt>
      <trkpt lat="35.695700" lon="-112.133530">
        <ele>1815.274</ele>
        <time>2018-12-28T23:12:36Z</time>
      </trkpt>
      <trkpt lat="35.695470" lon="-112.133560">
        <ele>1815.244</ele>
        <time>2018-12-28T23:12:56Z</time>
      </trkpt>
      <trkpt lat="35.695360" lon="-112.133580">
        <ele>1815.305</ele>
        <time>2018-12-28T23:13:16Z</time>
      </trkpt>
      <trkpt lat="35.695140" lon="-112.133610">
        <ele>1815.515</ele>
        <time>2018-12-28T23:13:36Z</time>
      </trkpt>
      <trkpt lat="35.694930" lon="-112.133640">
        <ele>1815.808</ele>
        <time>2018-12-28T23:13:56Z</time>
      </trkpt>
      <trkpt lat="35.694820" lon="-112.133650">
        <ele>1816.057</ele>
        <time>2018-12-28T23:14:16Z</time>
      </trkpt>
      <trkpt lat="35.694600" lon="-112.133680">
        <ele>1816.355</ele>
        <time>2018-12-28T23:14:36Z</time>
      </trkpt>
      <trkpt lat="35.694160" lon="-112.133740">
        <ele>1816.840</ele>
        <time>2018-12-28T23:14:56Z</time>
      </trkpt>
      <trkpt lat="35.693940" lon="-112.133770">
        <ele>1817.121</ele>
        <time>2018-12-28T23:15:16Z</time>
      </trkpt>
      <trkpt lat="35.693610" lon="-112.133820">
        <ele>1817.576</ele>
        <time>2018-12-28T23:15:36Z</time>
      </trkpt>
      <trkpt lat="35.693390" lon="-112.133840">
        <ele>1817.766</ele>
        <time>2018-12-28T23:15:56Z</time>
      </trkpt>
      <trkpt lat="35.693180" lon="-112.133870">
        <ele>1817.958</ele>
        <time>2018-12-28T23:16:16Z</time>
      </trkpt>
      <trkpt lat="35.693060" lon="-112.133890">
        <ele>1818.062</ele>
        <time>2018-12-28T23:16:36Z</time>
      </trkpt>
      <trkpt lat="35.692970" lon="-112.133900">
        <ele>1818.138</ele>
        <time>2018-12-28T23:16:56Z</time>
      </trkpt>
      <trkpt lat="35.692730" lon="-112.133940">
        <ele>1818.370</ele>
        <time>2018-12-28T23:17:16Z</time>
      </trkpt>
      <trkpt lat="35.692300" lon="-112.133990">
        <ele>1818.617</ele>
        <time>2018-12-28T23:17:36Z</time>
      </trkpt>
      <trkpt lat="35.691970" lon="-112.134040">
        <ele>1818.708</ele>
        <time>2018-12-28T23:17:56Z</time>
      </trkpt>
      <trkpt lat="35.691640" lon="-112.134080">
        <ele>1819.056</ele>
        <time>2018-12-28T23:18:16Z</time>
      </trkpt>
      <trkpt lat="35.691210" lon="-112.134140">
        <ele>1819.264</ele>
        <time>2018-12-28T23:18:36Z</time>
      </trkpt>
      <trkpt lat="35.690990" lon="-112.134170">
        <ele>1819.349</ele>
        <time>2018-12-28T23:18:56Z</time>
      </trkpt>
      <trkpt lat="35.690770" lon="-112.134200">
        <ele>1819.510</ele>
        <time>2018-12-28T23:19:16Z</time>
      </trkpt>
      <trkpt lat="35.690440" lon="-112.134240">
        <ele>1819.775</ele>
        <time>2018-12-28T23:19:36Z</time>
      </trkpt>
      <trkpt lat="35.690220" lon="-112.134270">
        <ele>1819.915</ele>
        <time>2018-12-28T23:19:56Z</time>
      </trkpt>
      <trkpt lat="35.690010" lon="-112.134300">
        <ele>1820.157</ele>
        <time>2018-12-28T23:20:16Z</time>
      </trkpt>
      <trkpt lat="35.689790" lon="-112.134330">
        <ele>1820.591</ele>
        <time>2018-12-28T23:20:36Z</time>
      </trkpt>
      <trkpt lat="35.689350" lon="-112.134390">
        <ele>1821.358</ele>
        <time>2018-12-28T23:20:56Z</time>
      </trkpt>
      <trkpt lat="35.688920" lon="-112.134440">
        <ele>1822.252</ele>
        <time>2018-12-28T23:21:16Z</time>
      </trkpt>
      <trkpt lat="35.688480" lon="-112.134500">
        <ele>1822.617</ele>
        <time>2018-12-28T23:21:36Z</time>
      </trkpt>
      <trkpt lat="35.688030" lon="-112.134560">
        <ele>1822.608</ele>
        <time>2018-12-28T23:21:56Z</time>
      </trkpt>
      <trkpt lat="35.687800" lon="-112.134590">
        <ele>1822.588</ele>
        <time>2018-12-28T23:22:16Z</time>
      </trkpt>
      <trkpt lat="35.687600" lon="-112.134620">
        <ele>1822.436</ele>
        <time>2018-12-28T23:22:36Z</time>
      </trkpt>
      <trkpt lat="35.687280" lon="-112.134670">
        <ele>1822.321</ele>
        <time>2018-12-28T23:22:56Z</time>
      </trkpt>
      <trkpt lat="35.686950" lon="-112.134710">
        <ele>1821.852</ele>
        <time>2018-12-28T23:23:16Z</time>
      </trkpt>
      <trkpt lat="35.686630" lon="-112.134760">
        <ele>1821.177</ele>
        <time>2018-12-28T23:23:36Z</time>
      </trkpt>
      <trkpt lat="35.686460" lon="-112.134780">
        <ele>1820.867</ele>
        <time>2018-12-28T23:23:56Z</time>
      </trkpt>
      <trkpt lat="35.686190" lon="-112.134820">
        <ele>1820.479</ele>
        <time>2018-12-28T23:24:16Z</time>
      </trkpt>
      <trkpt lat="35.685960" lon="-112.134850">
        <ele>1820.193</ele>
        <time>2018-12-28T23:24:36Z</time>
      </trkpt>
      <trkpt lat="35.685640" lon="-112.134900">
        <ele>1819.434</ele>
        <time>2018-12-28T23:24:56Z</time>
      </trkpt>
      <trkpt lat="35.685410" lon="-112.134930">
        <ele>1819.155</ele>
        <time>2018-12-28T23:25:16Z</time>
      </trkpt>
      <trkpt lat="35.685140" lon="-112.134970">
        <ele>1818.810</ele>
        <time>2018-12-28T23:25:36Z</time>
      </trkpt>
      <trkpt lat="35.684760" lon="-112.135020">
        <ele>1818.608</ele>
        <time>2018-12-28T23:25:56Z</time>
      </trkpt>
      <trkpt lat="35.684430" lon="-112.135060">
        <ele>1818.336</ele>
        <time>2018-12-28T23:26:16Z</time>
      </trkpt>
      <trkpt lat="35.684110" lon="-112.135100">
        <ele>1818.624</ele>
        <time>2018-12-28T23:26:36Z</time>
      </trkpt>
      <trkpt lat="35.683790" lon="-112.135140">
        <ele>1819.479</ele>
        <time>2018-12-28T23:26:56Z</time>
      </trkpt>
      <trkpt lat="35.683560" lon="-112.135170">
        <ele>1819.910</ele>
        <time>2018-12-28T23:27:16Z</time>
      </trkpt>
      <trkpt lat="35.683340" lon="-112.135200">
        <ele>1820.085</ele>
        <time>2018-12-28T23:27:36Z</time>
      </trkpt>
      <trkpt lat="35.683120" lon="-112.135230">
        <ele>1819.825</ele>
        <time>2018-12-28T23:27:56Z</time>
      </trkpt>
      <trkpt lat="35.682900" lon="-112.135270">
        <ele>1819.517</ele>
        <time>2018-12-28T23:28:16Z</time>
      </trkpt>
      <trkpt lat="35.682690" lon="-112.135300">
        <ele>1819.421</ele>
        <time>2018-12-28T23:28:36Z</time>
      </trkpt>
      <trkpt lat="35.682470" lon="-112.135320">
        <ele>1819.578</ele>
        <time>2018-12-28T23:28:56Z</time>
      </trkpt>
      <trkpt lat="35.682250" lon="-112.135350">
        <ele>1819.733</ele>
        <time>2018-12-28T23:29:16Z</time>
      </trkpt>
      <trkpt lat="35.682140" lon="-112.135370">
        <ele>1819.726</ele>
        <time>2018-12-28T23:29:36Z</time>
      </trkpt>
      <trkpt lat="35.682020" lon="-112.135390">
        <ele>1819.708</ele>
        <time>2018-12-28T23:29:56Z</time>
      </trkpt>
      <trkpt lat="35.681810" lon="-112.135420">
        <ele>1819.840</ele>
        <time>2018-12-28T23:30:16Z</time>
      </trkpt>
      <trkpt lat="35.681590" lon="-112.135450">
        <ele>1819.628</ele>
        <time>2018-12-28T23:30:36Z</time>
      </trkpt>
      <trkpt lat="35.681430" lon="-112.135470">
        <ele>1819.513</ele>
        <time>2018-12-28T23:30:56Z</time>
      </trkpt>
      <trkpt lat="35.681040" lon="-112.135520">
        <ele>1819.354</ele>
        <time>2018-12-28T23:31:16Z</time>
      </trkpt>
      <trkpt lat="35.680940" lon="-112.135540">
        <ele>1819.359</ele>
        <time>2018-12-28T23:31:36Z</time>
      </trkpt>
      <trkpt lat="35.680610" lon="-112.135580">
        <ele>1819.449</ele>
        <time>2018-12-28T23:31:56Z</time>
      </trkpt>
      <trkpt lat="35.679840" lon="-112.135690">
        <ele>1820.221</ele>
        <time>2018-12-28T23:32:16Z</time>
      </trkpt>
      <trkpt lat="35.679290" lon="-112.135760">
        <ele>1820.645</ele>
        <time>2018-12-28T23:32:36Z</time>
      </trkpt>
      <trkpt lat="35.678960" lon="-112.135800">
        <ele>1821.175</ele>
        <time>2018-12-28T23:32:56Z</time>
      </trkpt>
      <trkpt lat="35.678650" lon="-112.135840">
        <ele>1821.328</ele>
        <time>2018-12-28T23:33:16Z</time>
      </trkpt>
      <trkpt lat="35.677870" lon="-112.135950">
        <ele>1821.820</ele>
        <time>2018-12-28T23:33:36Z</time>
      </trkpt>
      <trkpt lat="35.677540" lon="-112.135990">
        <ele>1822.008</ele>
        <time>2018-12-28T23:33:56Z</time>
      </trkpt>
      <trkpt lat="35.677220" lon="-112.136030">
        <ele>1822.360</ele>
        <time>2018-12-28T23:34:16Z</time>
      </trkpt>
      <trkpt lat="35.676890" lon="-112.136080">
        <ele>1822.478</ele>
        <time>2018-12-28T23:34:36Z</time>
      </trkpt>
      <trkpt lat="35.676560" lon="-112.136120">
        <ele>1822.543</ele>
        <time>2018-12-28T23:34:56Z</time>
      </trkpt>
      <trkpt lat="35.676350" lon="-112.136150">
        <ele>1822.694</ele>
        <time>2018-12-28T23:35:16Z</time>
      </trkpt>
      <trkpt lat="35.675800" lon="-112.136230">
        <ele>1822.349</ele>
        <time>2018-12-28T23:35:36Z</time>
      </trkpt>
      <trkpt lat="35.675490" lon="-112.136270">
        <ele>1822.339</ele>
        <time>2018-12-28T23:35:56Z</time>
      </trkpt>
      <trkpt lat="35.675370" lon="-112.136280">
        <ele>1822.391</ele>
        <time>2018-12-28T23:36:16Z</time>
      </trkpt>
      <trkpt lat="35.674810" lon="-112.136360">
        <ele>1822.365</ele>
        <time>2018-12-28T23:36:36Z</time>
      </trkpt>
      <trkpt lat="35.674370" lon="-112.136420">
        <ele>1822.384</ele>
        <time>2018-12-28T23:36:56Z</time>
      </trkpt>
      <trkpt lat="35.673830" lon="-112.136500">
        <ele>1822.407</ele>
        <time>2018-12-28T23:37:16Z</time>
      </trkpt>
      <trkpt lat="35.673500" lon="-112.136540">
        <ele>1822.117</ele>
        <time>2018-12-28T23:37:36Z</time>
      </trkpt>
      <trkpt lat="35.673060" lon="-112.136600">
        <ele>1822.108</ele>
        <time>2018-12-28T23:37:56Z</time>
      </trkpt>
      <trkpt lat="35.672720" lon="-112.136650">
        <ele>1822.251</ele>
        <time>2018-12-28T23:38:16Z</time>
      </trkpt>
      <trkpt lat="35.672520" lon="-112.136670">
        <ele>1822.259</ele>
        <time>2018-12-28T23:38:36Z</time>
      </trkpt>
      <trkpt lat="35.672190" lon="-112.136720">
        <ele>1822.214</ele>
        <time>2018-12-28T23:38:56Z</time>
      </trkpt>
      <trkpt lat="35.671970" lon="-112.136750">
        <ele>1822.235</ele>
        <time>2018-12-28T23:39:16Z</time>
      </trkpt>
      <trkpt lat="35.671650" lon="-112.136790">
        <ele>1822.230</ele>
        <time>2018-12-28T23:39:36Z</time>
      </trkpt>
      <trkpt lat="35.671430" lon="-112.136820">
        <ele>1822.340</ele>
        <time>2018-12-28T23:39:56Z</time>
      </trkpt>
      <trkpt lat="35.671300" lon="-112.136840">
        <ele>1822.362</ele>
        <time>2018-12-28T23:40:16Z</time>
      </trkpt>
      <trkpt lat="35.670440" lon="-112.136960">
        <ele>1822.496</ele>
        <time>2018-12-28T23:40:36Z</time>
      </trkpt>
      <trkpt lat="35.669800" lon="-112.137050">
        <ele>1822.545</ele>
        <time>2018-12-28T23:40:56Z</time>
      </trkpt>
      <trkpt lat="35.669470" lon="-112.137100">
        <ele>1822.547</ele>
        <time>2018-12-28T23:41:16Z</time>
      </trkpt>
      <trkpt lat="35.669240" lon="-112.137130">
        <ele>1822.511</ele>
        <time>2018-12-28T23:41:36Z</time>
      </trkpt>
      <trkpt lat="35.668630" lon="-112.137210">
        <ele>1822.608</ele>
        <time>2018-12-28T23:41:56Z</time>
      </trkpt>
      <trkpt lat="35.666950" lon="-112.137440">
        <ele>1823.587</ele>
        <time>2018-12-28T23:42:16Z</time>
      </trkpt>
      <trkpt lat="35.666720" lon="-112.137470">
        <ele>1823.645</ele>
        <time>2018-12-28T23:42:36Z</time>
      </trkpt>
      <trkpt lat="35.666400" lon="-112.137520">
        <ele>1823.610</ele>
        <time>2018-12-28T23:42:56Z</time>
      </trkpt>
      <trkpt lat="35.666180" lon="-112.137550">
        <ele>1823.631</ele>
        <time>2018-12-28T23:43:16Z</time>
      </trkpt>
      <trkpt lat="35.665960" lon="-112.137580">
        <ele>1823.656</ele>
        <time>2018-12-28T23:43:36Z</time>
      </trkpt>
      <trkpt lat="35.665860" lon="-112.137600">
        <ele>1823.636</ele>
        <time>2018-12-28T23:43:56Z</time>
      </trkpt>
      <trkpt lat="35.665740" lon="-112.137610">
        <ele>1823.678</ele>
        <time>2018-12-28T23:44:16Z</time>
      </trkpt>
      <trkpt lat="35.665620" lon="-112.137630">
        <ele>1823.622</ele>
        <time>2018-12-28T23:44:36Z</time>
      </trkpt>
      <trkpt lat="35.665390" lon="-112.137660">
        <ele>1823.897</ele>
        <time>2018-12-28T23:44:56Z</time>
      </trkpt>
      <trkpt lat="35.665050" lon="-112.137710">
        <ele>1824.223</ele>
        <time>2018-12-28T23:45:16Z</time>
      </trkpt>
      <trkpt lat="35.664700" lon="-112.137750">
        <ele>1824.525</ele>
        <time>2018-12-28T23:45:36Z</time>
      </trkpt>
      <trkpt lat="35.664010" lon="-112.137850">
        <ele>1824.708</ele>
        <time>2018-12-28T23:45:56Z</time>
      </trkpt>
      <trkpt lat="35.663780" lon="-112.137880">
        <ele>1824.812</ele>
        <time>2018-12-28T23:46:16Z</time>
      </trkpt>
      <trkpt lat="35.663550" lon="-112.137910">
        <ele>1824.880</ele>
        <time>2018-12-28T23:46:36Z</time>
      </trkpt>
      <trkpt lat="35.663320" lon="-112.137940">
        <ele>1824.875</ele>
        <time>2018-12-28T23:46:56Z</time>
      </trkpt>
      <trkpt lat="35.663090" lon="-112.137970">
        <ele>1824.856</ele>
        <time>2018-12-28T23:47:16Z</time>
      </trkpt>
      <trkpt lat="35.662860" lon="-112.138000">
        <ele>1824.811</ele>
        <time>2018-12-28T23:47:36Z</time>
      </trkpt>
      <trkpt lat="35.662750" lon="-112.138020">
        <ele>1824.821</ele>
        <time>2018-12-28T23:47:56Z</time>
      </trkpt>
      <trkpt lat="35.662640" lon="-112.138030">
        <ele>1824.853</ele>
        <time>2018-12-28T23:48:16Z</time>
      </trkpt>
      <trkpt lat="35.662400" lon="-112.138060">
        <ele>1824.817</ele>
        <time>2018-12-28T23:48:36Z</time>
      </trkpt>
      <trkpt lat="35.662060" lon="-112.138110">
        <ele>1824.711</ele>
        <time>2018-12-28T23:48:56Z</time>
      </trkpt>
      <trkpt lat="35.661480" lon="-112.138190">
        <ele>1824.721</ele>
        <time>2018-12-28T23:49:16Z</time>
      </trkpt>
      <trkpt lat="35.661140" lon="-112.138240">
        <ele>1824.703</ele>
        <time>2018-12-28T23:49:36Z</time>
      </trkpt>
      <trkpt lat="35.660910" lon="-112.138270">
        <ele>1824.808</ele>
        <time>2018-12-28T23:49:56Z</time>
      </trkpt>
      <trkpt lat="35.660440" lon="-112.138330">
        <ele>1824.934</ele>
        <time>2018-12-28T23:50:16Z</time>
      </trkpt>
      <trkpt lat="35.659880" lon="-112.138400">
        <ele>1825.372</ele>
        <time>2018-12-28T23:50:36Z</time>
      </trkpt>
      <trkpt lat="35.659620" lon="-112.138440">
        <ele>1825.417</ele>
        <time>2018-12-28T23:50:56Z</time>
      </trkpt>
      <trkpt lat="35.659300" lon="-112.138480">
        <ele>1825.518</ele>
        <time>2018-12-28T23:51:16Z</time>
      </trkpt>
      <trkpt lat="35.659250" lon="-112.138490">
        <ele>1825.463</ele>
        <time>2018-12-28T23:51:36Z</time>
      </trkpt>
      <trkpt lat="35.658810" lon="-112.138550">
        <ele>1825.473</ele>
        <time>2018-12-28T23:51:56Z</time>
      </trkpt>
      <trkpt lat="35.658700" lon="-112.138560">
        <ele>1825.485</ele>
        <time>2018-12-28T23:52:16Z</time>
      </trkpt>
      <trkpt lat="35.657920" lon="-112.138670">
        <ele>1825.689</ele>
        <time>2018-12-28T23:52:36Z</time>
      </trkpt>
      <trkpt lat="35.657410" lon="-112.138740">
        <ele>1825.877</ele>
        <time>2018-12-28T23:52:56Z</time>
      </trkpt>
      <trkpt lat="35.657070" lon="-112.138790">
        <ele>1825.761</ele>
        <time>2018-12-28T23:53:16Z</time>
      </trkpt>
      <trkpt lat="35.656570" lon="-112.138850">
        <ele>1825.827</ele>
        <time>2018-12-28T23:53:36Z</time>
      </trkpt>
      <trkpt lat="35.656130" lon="-112.138930">
        <ele>1825.908</ele>
        <time>2018-12-28T23:53:56Z</time>
      </trkpt>
      <trkpt lat="35.655440" lon="-112.139030">
        <ele>1825.980</ele>
        <time>2018-12-28T23:54:16Z</time>
      </trkpt>
      <trkpt lat="35.654970" lon="-112.139070">
        <ele>1826.198</ele>
        <time>2018-12-28T23:54:36Z</time>
      </trkpt>
      <trkpt lat="35.654760" lon="-112.139100">
        <ele>1826.253</ele>
        <time>2018-12-28T23:54:56Z</time>
      </trkpt>
      <trkpt lat="35.653770" lon="-112.139240">
        <ele>1826.524</ele>
        <time>2018-12-28T23:55:16Z</time>
      </trkpt>
      <trkpt lat="35.653600" lon="-112.139260">
        <ele>1826.529</ele>
        <time>2018-12-28T23:55:36Z</time>
      </trkpt>
      <trkpt lat="35.653330" lon="-112.139290">
        <ele>1826.669</ele>
        <time>2018-12-28T23:55:56Z</time>
      </trkpt>
      <trkpt lat="35.652980" lon="-112.139340">
        <ele>1826.651</ele>
        <time>2018-12-28T23:56:16Z</time>
      </trkpt>
      <trkpt lat="35.652630" lon="-112.139390">
        <ele>1826.795</ele>
        <time>2018-12-28T23:56:36Z</time>
      </trkpt>
      <trkpt lat="35.652540" lon="-112.139400">
        <ele>1826.837</ele>
        <time>2018-12-28T23:56:56Z</time>
      </trkpt>
      <trkpt lat="35.652100" lon="-112.139460">
        <ele>1826.949</ele>
        <time>2018-12-28T23:57:16Z</time>
      </trkpt>
      <trkpt lat="35.651520" lon="-112.139540">
        <ele>1827.013</ele>
        <time>2018-12-28T23:57:36Z</time>
      </trkpt>
      <trkpt lat="35.651330" lon="-112.139560">
        <ele>1827.008</ele>
        <time>2018-12-28T23:57:56Z</time>
      </trkpt>
      <trkpt lat="35.650830" lon="-112.139650">
        <ele>1827.286</ele>
        <time>2018-12-28T23:58:16Z</time>
      </trkpt>
      <trkpt lat="35.650540" lon="-112.139690">
        <ele>1827.444</ele>
        <time>2018-12-28T23:58:36Z</time>
      </trkpt>
      <trkpt lat="35.650290" lon="-112.139720">
        <ele>1827.429</ele>
        <time>2018-12-28T23:58:56Z</time>
      </trkpt>
      <trkpt lat="35.650030" lon="-112.139750">
        <ele>1827.620</ele>
        <time>2018-12-28T23:59:16Z</time>
      </trkpt>
      <trkpt lat="35.649670" lon="-112.139800">
        <ele>1827.775</ele>
        <time>2018-12-28T23:59:36Z</time>
      </trkpt>
      <trkpt lat="35.648890" lon="-112.139900">
        <ele>1827.955</ele>
        <time>2018-12-28T23:59:56Z</time>
      </trkpt>
      <trkpt lat="35.648520" lon="-112.139960">
        <ele>1828.067</ele>
        <time>2018-12-29T00:00:16Z</time>
      </trkpt>
      <trkpt lat="35.647340" lon="-112.140120">
        <ele>1828.191</ele>
        <time>2018-12-29T00:00:36Z</time>
      </trkpt>
      <trkpt lat="35.643050" lon="-112.140700">
        <ele>1826.973</ele>
        <time>2018-12-29T00:00:56Z</time>
      </trkpt>
      <trkpt lat="35.642070" lon="-112.140830">
        <ele>1826.085</ele>
        <time>2018-12-29T00:01:16Z</time>
      </trkpt>
      <trkpt lat="35.640710" lon="-112.141020">
        <ele>1823.513</ele>
        <time>2018-12-29T00:01:36Z</time>
      </trkpt>
      <trkpt lat="35.638850" lon="-112.141280">
        <ele>1824.008</ele>
        <time>2018-12-29T00:01:56Z</time>
      </trkpt>
      <trkpt lat="35.636900" lon="-112.141540">
        <ele>1824.160</ele>
        <time>2018-12-29T00:02:16Z</time>
      </trkpt>
      <trkpt lat="35.634560" lon="-112.141860">
        <ele>1825.828</ele>
        <time>2018-12-29T00:02:36Z</time>
      </trkpt>
      <trkpt lat="35.633020" lon="-112.142070">
        <ele>1826.893</ele>
        <time>2018-12-29T00:02:56Z</time>
      </trkpt>
      <trkpt lat="35.632570" lon="-112.142130">
        <ele>1828.224</ele>
        <time>2018-12-29T00:03:16Z</time>
      </trkpt>
      <trkpt lat="35.629230" lon="-112.142580">
        <ele>1827.349</ele>
        <time>2018-12-29T00:03:36Z</time>
      </trkpt>
      <trkpt lat="35.628200" lon="-112.142730">
        <ele>1832.419</ele>
        <time>2018-12-29T00:03:56Z</time>
      </trkpt>
      <trkpt lat="35.625890" lon="-112.143030">
        <ele>1835.061</ele>
        <time>2018-12-29T00:04:16Z</time>
      </trkpt>
      <trkpt lat="35.625410" lon="-112.143100">
        <ele>1834.865</ele>
        <time>2018-12-29T00:04:36Z</time>
      </trkpt>
      <trkpt lat="35.625080" lon="-112.143150">
        <ele>1834.813</ele>
        <time>2018-12-29T00:04:56Z</time>
      </trkpt>
      <trkpt lat="35.623780" lon="-112.143320">
        <ele>1834.443</ele>
        <time>2018-12-29T00:05:16Z</time>
      </trkpt>
      <trkpt lat="35.623210" lon="-112.143400">
        <ele>1832.907</ele>
        <time>2018-12-29T00:05:36Z</time>
      </trkpt>
      <trkpt lat="35.622320" lon="-112.143520">
        <ele>1830.908</ele>
        <time>2018-12-29T00:05:56Z</time>
      </trkpt>
      <trkpt lat="35.616170" lon="-112.144360">
        <ele>1833.874</ele>
        <time>2018-12-29T00:06:16Z</time>
      </trkpt>
      <trkpt lat="35.615720" lon="-112.144420">
        <ele>1834.492</ele>
        <time>2018-12-29T00:06:36Z</time>
      </trkpt>
      <trkpt lat="35.614580" lon="-112.144580">
        <ele>1835.597</ele>
        <time>2018-12-29T00:06:56Z</time>
      </trkpt>
      <trkpt lat="35.613980" lon="-112.144660">
        <ele>1835.938</ele>
        <time>2018-12-29T00:07:16Z</time>
      </trkpt>
      <trkpt lat="35.612500" lon="-112.144880">
        <ele>1836.433</ele>
        <time>2018-12-29T00:07:36Z</time>
      </trkpt>
      <trkpt lat="35.611720" lon="-112.145000">
        <ele>1836.663</ele>
        <time>2018-12-29T00:07:56Z</time>
      </trkpt>
      <trkpt lat="35.610370" lon="-112.145220">
        <ele>1837.645</ele>
        <time>2018-12-29T00:08:16Z</time>
      </trkpt>
      <trkpt lat="35.609590" lon="-112.145340">
        <ele>1837.869</ele>
        <time>2018-12-29T00:08:36Z</time>
      </trkpt>
      <trkpt lat="35.608370" lon="-112.145540">
        <ele>1838.745</ele>
        <time>2018-12-29T00:08:56Z</time>
      </trkpt>
      <trkpt lat="35.607920" lon="-112.145620">
        <ele>1839.147</ele>
        <time>2018-12-29T00:09:16Z</time>
      </trkpt>
      <trkpt lat="35.606580" lon="-112.145860">
        <ele>1840.111</ele>
        <time>2018-12-29T00:09:36Z</time>
      </trkpt>
      <trkpt lat="35.605920" lon="-112.145990">
        <ele>1840.408</ele>
        <time>2018-12-29T00:09:56Z</time>
      </trkpt>
      <trkpt lat="35.605480" lon="-112.146070">
        <ele>1840.637</ele>
        <time>2018-12-29T00:10:16Z</time>
      </trkpt>
      <trkpt lat="35.604480" lon="-112.146260">
        <ele>1841.575</ele>
        <time>2018-12-29T00:10:36Z</time>
      </trkpt>
      <trkpt lat="35.603920" lon="-112.146380">
        <ele>1841.950</ele>
        <time>2018-12-29T00:10:56Z</time>
      </trkpt>
      <trkpt lat="35.603580" lon="-112.146450">
        <ele>1842.091</ele>
        <time>2018-12-29T00:11:16Z</time>
      </trkpt>
      <trkpt lat="35.603250" lon="-112.146520">
        <ele>1842.256</ele>
        <time>2018-12-29T00:11:36Z</time>
      </trkpt>
      <trkpt lat="35.601810" lon="-112.146840">
        <ele>1842.656</ele>
        <time>2018-12-29T00:11:56Z</time>
      </trkpt>
      <trkpt lat="35.601260" lon="-112.146970">
        <ele>1842.728</ele>
        <time>2018-12-29T00:12:16Z</time>
      </trkpt>
      <trkpt lat="35.600380" lon="-112.147190">
        <ele>1842.762</ele>
        <time>2018-12-29T00:12:36Z</time>
      </trkpt>
      <trkpt lat="35.599710" lon="-112.147370">
        <ele>1842.214</ele>
        <time>2018-12-29T00:12:56Z</time>
      </trkpt>
      <trkpt lat="35.599500" lon="-112.147430">
        <ele>1842.154</ele>
        <time>2018-12-29T00:13:16Z</time>
      </trkpt>
      <trkpt lat="35.599050" lon="-112.147540">
        <ele>1842.009</ele>
        <time>2018-12-29T00:13:36Z</time>
      </trkpt>
      <trkpt lat="35.597940" lon="-112.147830">
        <ele>1841.408</ele>
        <time>2018-12-29T00:13:56Z</time>
      </trkpt>
      <trkpt lat="35.597240" lon="-112.148020">
        <ele>1841.344</ele>
        <time>2018-12-29T00:14:16Z</time>
      </trkpt>
      <trkpt lat="35.596370" lon="-112.148250">
        <ele>1841.372</ele>
        <time>2018-12-29T00:14:36Z</time>
      </trkpt>
      <trkpt lat="35.594310" lon="-112.148800">
        <ele>1840.627</ele>
        <time>2018-12-29T00:14:56Z</time>
      </trkpt>
      <trkpt lat="35.593650" lon="-112.148970">
        <ele>1840.488</ele>
        <time>2018-12-29T00:15:16Z</time>
      </trkpt>
      <trkpt lat="35.592580" lon="-112.149260">
        <ele>1840.283</ele>
        <time>2018-12-29T00:15:36Z</time>
      </trkpt>
      <trkpt lat="35.592290" lon="-112.149330">
        <ele>1840.063</ele>
        <time>2018-12-29T00:15:56Z</time>
      </trkpt>
      <trkpt lat="35.591200" lon="-112.149630">
        <ele>1839.875</ele>
        <time>2018-12-29T00:16:16Z</time>
      </trkpt>
      <trkpt lat="35.590000" lon="-112.149930">
        <ele>1839.079</ele>
        <time>2018-12-29T00:16:36Z</time>
      </trkpt>
      <trkpt lat="35.589250" lon="-112.150150">
        <ele>1838.342</ele>
        <time>2018-12-29T00:16:56Z</time>
      </trkpt>
      <trkpt lat="35.588280" lon="-112.150400">
        <ele>1837.522</ele>
        <time>2018-12-29T00:17:16Z</time>
      </trkpt>
      <trkpt lat="35.587410" lon="-112.150630">
        <ele>1836.314</ele>
        <time>2018-12-29T00:17:36Z</time>
      </trkpt>
      <trkpt lat="35.586990" lon="-112.150740">
        <ele>1834.908</ele>
        <time>2018-12-29T00:17:56Z</time>
      </trkpt>
      <trkpt lat="35.586400" lon="-112.150890">
        <ele>1830.087</ele>
        <time>2018-12-29T00:18:16Z</time>
      </trkpt>
      <trkpt lat="35.584830" lon="-112.151310">
        <ele>1837.685</ele>
        <time>2018-12-29T00:18:36Z</time>
      </trkpt>
      <trkpt lat="35.583450" lon="-112.151680">
        <ele>1840.530</ele>
        <time>2018-12-29T00:18:56Z</time>
      </trkpt>
      <trkpt lat="35.581400" lon="-112.152220">
        <ele>1840.141</ele>
        <time>2018-12-29T00:19:16Z</time>
      </trkpt>
      <trkpt lat="35.579750" lon="-112.152670">
        <ele>1839.866</ele>
        <time>2018-12-29T00:19:36Z</time>
      </trkpt>
      <trkpt lat="35.579360" lon="-112.152760">
        <ele>1840.076</ele>
        <time>2018-12-29T00:19:56Z</time>
      </trkpt>
      <trkpt lat="35.578060" lon="-112.153100">
        <ele>1840.768</ele>
        <time>2018-12-29T00:20:16Z</time>
      </trkpt>
      <trkpt lat="35.576800" lon="-112.153440">
        <ele>1841.422</ele>
        <time>2018-12-29T00:20:36Z</time>
      </trkpt>
      <trkpt lat="35.575700" lon="-112.153730">
        <ele>1841.544</ele>
        <time>2018-12-29T00:20:56Z</time>
      </trkpt>
      <trkpt lat="35.574840" lon="-112.153960">
        <ele>1841.405</ele>
        <time>2018-12-29T00:21:16Z</time>
      </trkpt>
      <trkpt lat="35.574430" lon="-112.154070">
        <ele>1841.415</ele>
        <time>2018-12-29T00:21:36Z</time>
      </trkpt>
      <trkpt lat="35.570820" lon="-112.155020">
        <ele>1841.408</ele>
        <time>2018-12-29T00:21:56Z</time>
      </trkpt>
      <trkpt lat="35.568710" lon="-112.155580">
        <ele>1841.527</ele>
        <time>2018-12-29T00:22:16Z</time>
      </trkpt>
      <trkpt lat="35.566660" lon="-112.156130">
        <ele>1843.675</ele>
        <time>2018-12-29T00:22:36Z</time>
      </trkpt>
      <trkpt lat="35.565500" lon="-112.156440">
        <ele>1845.810</ele>
        <time>2018-12-29T00:22:56Z</time>
      </trkpt>
      <trkpt lat="35.563780" lon="-112.156890">
        <ele>1850.791</ele>
        <time>2018-12-29T00:23:16Z</time>
      </trkpt>
      <trkpt lat="35.562910" lon="-112.157120">
        <ele>1851.166</ele>
        <time>2018-12-29T00:23:36Z</time>
      </trkpt>
      <trkpt lat="35.562380" lon="-112.157260">
        <ele>1849.636</ele>
        <time>2018-12-29T00:23:56Z</time>
      </trkpt>
      <trkpt lat="35.560450" lon="-112.157770">
        <ele>1852.078</ele>
        <time>2018-12-29T00:24:16Z</time>
      </trkpt>
      <trkpt lat="35.559610" lon="-112.157990">
        <ele>1852.812</ele>
        <time>2018-12-29T00:24:36Z</time>
      </trkpt>
      <trkpt lat="35.557970" lon="-112.158430">
        <ele>1855.958</ele>
        <time>2018-12-29T00:24:56Z</time>
      </trkpt>
      <trkpt lat="35.556890" lon="-112.158710">
        <ele>1857.252</ele>
        <time>2018-12-29T00:25:16Z</time>
      </trkpt>
      <trkpt lat="35.556150" lon="-112.158910">
        <ele>1859.917</ele>
        <time>2018-12-29T00:25:36Z</time>
      </trkpt>
      <trkpt lat="35.555070" lon="-112.159200">
        <ele>1863.408</ele>
        <time>2018-12-29T00:25:56Z</time>
      </trkpt>
      <trkpt lat="35.554320" lon="-112.159390">
        <ele>1864.678</ele>
        <time>2018-12-29T00:26:16Z</time>
      </trkpt>
      <trkpt lat="35.553890" lon="-112.159510">
        <ele>1864.786</ele>
        <time>2018-12-29T00:26:36Z</time>
      </trkpt>
      <trkpt lat="35.553570" lon="-112.159600">
        <ele>1864.611</ele>
        <time>2018-12-29T00:26:56Z</time>
      </trkpt>
      <trkpt lat="35.553030" lon="-112.159740">
        <ele>1865.292</ele>
        <time>2018-12-29T00:27:16Z</time>
      </trkpt>
      <trkpt lat="35.552720" lon="-112.159820">
        <ele>1865.987</ele>
        <time>2018-12-29T00:27:36Z</time>
      </trkpt>
      <trkpt lat="35.552070" lon="-112.159990">
        <ele>1867.067</ele>
        <time>2018-12-29T00:27:56Z</time>
      </trkpt>
      <trkpt lat="35.551430" lon="-112.160160">
        <ele>1867.179</ele>
        <time>2018-12-29T00:28:16Z</time>
      </trkpt>
      <trkpt lat="35.550990" lon="-112.160280">
        <ele>1867.143</ele>
        <time>2018-12-29T00:28:36Z</time>
      </trkpt>
      <trkpt lat="35.550560" lon="-112.160390">
        <ele>1867.966</ele>
        <time>2018-12-29T00:28:56Z</time>
      </trkpt>
      <trkpt lat="35.550020" lon="-112.160540">
        <ele>1868.529</ele>
        <time>2018-12-29T00:29:16Z</time>
      </trkpt>
      <trkpt lat="35.549170" lon="-112.160760">
        <ele>1869.721</ele>
        <time>2018-12-29T00:29:36Z</time>
      </trkpt>
      <trkpt lat="35.548950" lon="-112.160820">
        <ele>1870.008</ele>
        <time>2018-12-29T00:29:56Z</time>
      </trkpt>
      <trkpt lat="35.547990" lon="-112.161070">
        <ele>1871.789</ele>
        <time>2018-12-29T00:30:16Z</time>
      </trkpt>
      <trkpt lat="35.546800" lon="-112.161380">
        <ele>1874.257</ele>
        <time>2018-12-29T00:30:36Z</time>
      </trkpt>
      <trkpt lat="35.546160" lon="-112.161560">
        <ele>1874.972</ele>
        <time>2018-12-29T00:30:56Z</time>
      </trkpt>
      <trkpt lat="35.545620" lon="-112.161700">
        <ele>1875.593</ele>
        <time>2018-12-29T00:31:16Z</time>
      </trkpt>
      <trkpt lat="35.542860" lon="-112.162440">
        <ele>1875.988</ele>
        <time>2018-12-29T00:31:36Z</time>
      </trkpt>
      <trkpt lat="35.542300" lon="-112.162580">
        <ele>1877.538</ele>
        <time>2018-12-29T00:31:56Z</time>
      </trkpt>
      <trkpt lat="35.541040" lon="-112.162920">
        <ele>1879.360</ele>
        <time>2018-12-29T00:32:16Z</time>
      </trkpt>
      <trkpt lat="35.539610" lon="-112.163320">
        <ele>1880.544</ele>
        <time>2018-12-29T00:32:36Z</time>
      </trkpt>
      <trkpt lat="35.538750" lon="-112.163570">
        <ele>1880.588</ele>
        <time>2018-12-29T00:32:56Z</time>
      </trkpt>
      <trkpt lat="35.538000" lon="-112.163800">
        <ele>1879.924</ele>
        <time>2018-12-29T00:33:16Z</time>
      </trkpt>
      <trkpt lat="35.537580" lon="-112.163940">
        <ele>1879.626</ele>
        <time>2018-12-29T00:33:36Z</time>
      </trkpt>
      <trkpt lat="35.534760" lon="-112.164860">
        <ele>1878.708</ele>
        <time>2018-12-29T00:33:56Z</time>
      </trkpt>
      <trkpt lat="35.534070" lon="-112.165080">
        <ele>1878.791</ele>
        <time>2018-12-29T00:34:16Z</time>
      </trkpt>
      <trkpt lat="35.533210" lon="-112.165360">
        <ele>1878.799</ele>
        <time>2018-12-29T00:34:36Z</time>
      </trkpt>
      <trkpt lat="35.532240" lon="-112.165670">
        <ele>1878.964</ele>
        <time>2018-12-29T00:34:56Z</time>
      </trkpt>
      <trkpt lat="35.531510" lon="-112.165910">
        <ele>1878.995</ele>
        <time>2018-12-29T00:35:16Z</time>
      </trkpt>
      <trkpt lat="35.529900" lon="-112.166430">
        <ele>1877.740</ele>
        <time>2018-12-29T00:35:36Z</time>
      </trkpt>
      <trkpt lat="35.529270" lon="-112.166640">
        <ele>1877.270</ele>
        <time>2018-12-29T00:35:56Z</time>
      </trkpt>
      <trkpt lat="35.528100" lon="-112.167020">
        <ele>1876.722</ele>
        <time>2018-12-29T00:36:16Z</time>
      </trkpt>
      <trkpt lat="35.526910" lon="-112.167400">
        <ele>1877.186</ele>
        <time>2018-12-29T00:36:36Z</time>
      </trkpt>
      <trkpt lat="35.526520" lon="-112.167530">
        <ele>1877.164</ele>
        <time>2018-12-29T00:36:56Z</time>
      </trkpt>
      <trkpt lat="35.526180" lon="-112.167640">
        <ele>1877.206</ele>
        <time>2018-12-29T00:37:16Z</time>
      </trkpt>
      <trkpt lat="35.525660" lon="-112.167810">
        <ele>1877.016</ele>
        <time>2018-12-29T00:37:36Z</time>
      </trkpt>
      <trkpt lat="35.525210" lon="-112.167960">
        <ele>1876.108</ele>
        <time>2018-12-29T00:37:56Z</time>
      </trkpt>
      <trkpt lat="35.524460" lon="-112.168210">
        <ele>1872.219</ele>
        <time>2018-12-29T00:38:16Z</time>
      </trkpt>
      <trkpt lat="35.523260" lon="-112.168600">
        <ele>1870.547</ele>
        <time>2018-12-29T00:38:36Z</time>
      </trkpt>
      <trkpt lat="35.522650" lon="-112.168800">
        <ele>1867.932</ele>
        <time>2018-12-29T00:38:56Z</time>
      </trkpt>
      <trkpt lat="35.521800" lon="-112.169080">
        <ele>1864.823</ele>
        <time>2018-12-29T00:39:16Z</time>
      </trkpt>
      <trkpt lat="35.520950" lon="-112.169360">
        <ele>1859.778</ele>
        <time>2018-12-29T00:39:36Z</time>
      </trkpt>
      <trkpt lat="35.520420" lon="-112.169530">
        <ele>1858.968</ele>
        <time>2018-12-29T00:39:56Z</time>
      </trkpt>
      <trkpt lat="35.519890" lon="-112.169700">
        <ele>1858.470</ele>
        <time>2018-12-29T00:40:16Z</time>
      </trkpt>
      <trkpt lat="35.519030" lon="-112.169980">
        <ele>1856.854</ele>
        <time>2018-12-29T00:40:36Z</time>
      </trkpt>
      <trkpt lat="35.518190" lon="-112.170260">
        <ele>1855.221</ele>
        <time>2018-12-29T00:40:56Z</time>
      </trkpt>
      <trkpt lat="35.517920" lon="-112.170350">
        <ele>1854.741</ele>
        <time>2018-12-29T00:41:16Z</time>
      </trkpt>
      <trkpt lat="35.517660" lon="-112.170430">
        <ele>1855.205</ele>
        <time>2018-12-29T00:41:36Z</time>
      </trkpt>
      <trkpt lat="35.517120" lon="-112.170600">
        <ele>1857.008</ele>
        <time>2018-12-29T00:41:56Z</time>
      </trkpt>
      <trkpt lat="35.516490" lon="-112.170800">
        <ele>1858.725</ele>
        <time>2018-12-29T00:42:16Z</time>
      </trkpt>
      <trkpt lat="35.515740" lon="-112.171050">
        <ele>1858.773</ele>
        <time>2018-12-29T00:42:36Z</time>
      </trkpt>
      <trkpt lat="35.514890" lon="-112.171330">
        <ele>1859.488</ele>
        <time>2018-12-29T00:42:56Z</time>
      </trkpt>
      <trkpt lat="35.514160" lon="-112.171570">
        <ele>1860.519</ele>
        <time>2018-12-29T00:43:16Z</time>
      </trkpt>
      <trkpt lat="35.513000" lon="-112.171950">
        <ele>1864.884</ele>
        <time>2018-12-29T00:43:36Z</time>
      </trkpt>
      <trkpt lat="35.512140" lon="-112.172230">
        <ele>1866.924</ele>
        <time>2018-12-29T00:43:56Z</time>
      </trkpt>
      <trkpt lat="35.511720" lon="-112.172370">
        <ele>1867.426</ele>
        <time>2018-12-29T00:44:16Z</time>
      </trkpt>
      <trkpt lat="35.511510" lon="-112.172440">
        <ele>1867.850</ele>
        <time>2018-12-29T00:44:36Z</time>
      </trkpt>
      <trkpt lat="35.511290" lon="-112.172510">
        <ele>1870.148</ele>
        <time>2018-12-29T00:44:56Z</time>
      </trkpt>
      <trkpt lat="35.510760" lon="-112.172660">
        <ele>1872.961</ele>
        <time>2018-12-29T00:45:16Z</time>
      </trkpt>
      <trkpt lat="35.510230" lon="-112.172830">
        <ele>1872.917</ele>
        <time>2018-12-29T00:45:36Z</time>
      </trkpt>
      <trkpt lat="35.509790" lon="-112.172940">
        <ele>1873.208</ele>
        <time>2018-12-29T00:45:56Z</time>
      </trkpt>
      <trkpt lat="35.509590" lon="-112.172990">
        <ele>1873.747</ele>
        <time>2018-12-29T00:46:16Z</time>
      </trkpt>
      <trkpt lat="35.509350" lon="-112.173040">
        <ele>1875.825</ele>
        <time>2018-12-29T00:46:36Z</time>
      </trkpt>
      <trkpt lat="35.509120" lon="-112.173080">
        <ele>1877.880</ele>
        <time>2018-12-29T00:46:56Z</time>
      </trkpt>
      <trkpt lat="35.508810" lon="-112.173150">
        <ele>1879.481</ele>
        <time>2018-12-29T00:47:16Z</time>
      </trkpt>
      <trkpt lat="35.508540" lon="-112.173210">
        <ele>1880.126</ele>
        <time>2018-12-29T00:47:36Z</time>
      </trkpt>
      <trkpt lat="35.507990" lon="-112.173310">
        <ele>1881.436</ele>
        <time>2018-12-29T00:47:56Z</time>
      </trkpt>
      <trkpt lat="35.507750" lon="-112.173350">
        <ele>1882.268</ele>
        <time>2018-12-29T00:48:16Z</time>
      </trkpt>
      <trkpt lat="35.507380" lon="-112.173400">
        <ele>1883.712</ele>
        <time>2018-12-29T00:48:36Z</time>
      </trkpt>
      <trkpt lat="35.506770" lon="-112.173490">
        <ele>1885.552</ele>
        <time>2018-12-29T00:48:56Z</time>
      </trkpt>
      <trkpt lat="35.506320" lon="-112.173540">
        <ele>1885.653</ele>
        <time>2018-12-29T00:49:16Z</time>
      </trkpt>
      <trkpt lat="35.505900" lon="-112.173580">
        <ele>1885.908</ele>
        <time>2018-12-29T00:49:36Z</time>
      </trkpt>
      <trkpt lat="35.505570" lon="-112.173610">
        <ele>1886.008</ele>
        <time>2018-12-29T00:49:56Z</time>
      </trkpt>
      <trkpt lat="35.504970" lon="-112.173650">
        <ele>1885.978</ele>
        <time>2018-12-29T00:50:16Z</time>
      </trkpt>
      <trkpt lat="35.504600" lon="-112.173680">
        <ele>1885.756</ele>
        <time>2018-12-29T00:50:36Z</time>
      </trkpt>
      <trkpt lat="35.504330" lon="-112.173690">
        <ele>1885.781</ele>
        <time>2018-12-29T00:50:56Z</time>
      </trkpt>
      <trkpt lat="35.503930" lon="-112.173720">
        <ele>1885.932</ele>
        <time>2018-12-29T00:51:16Z</time>
      </trkpt>
      <trkpt lat="35.502630" lon="-112.173800">
        <ele>1886.147</ele>
        <time>2018-12-29T00:51:36Z</time>
      </trkpt>
      <trkpt lat="35.501470" lon="-112.173880">
        <ele>1883.647</ele>
        <time>2018-12-29T00:51:56Z</time>
      </trkpt>
      <trkpt lat="35.500450" lon="-112.173940">
        <ele>1882.449</ele>
        <time>2018-12-29T00:52:16Z</time>
      </trkpt>
      <trkpt lat="35.500190" lon="-112.173950">
        <ele>1882.263</ele>
        <time>2018-12-29T00:52:36Z</time>
      </trkpt>
      <trkpt lat="35.499940" lon="-112.173970">
        <ele>1881.651</ele>
        <time>2018-12-29T00:52:56Z</time>
      </trkpt>
      <trkpt lat="35.499710" lon="-112.173980">
        <ele>1880.701</ele>
        <time>2018-12-29T00:53:16Z</time>
      </trkpt>
      <trkpt lat="35.499150" lon="-112.174020">
        <ele>1879.111</ele>
        <time>2018-12-29T00:53:36Z</time>
      </trkpt>
      <trkpt lat="35.498630" lon="-112.174040">
        <ele>1878.508</ele>
        <time>2018-12-29T00:53:56Z</time>
      </trkpt>
      <trkpt lat="35.498400" lon="-112.174050">
        <ele>1878.388</ele>
        <time>2018-12-29T00:54:16Z</time>
      </trkpt>
      <trkpt lat="35.498210" lon="-112.174070">
        <ele>1877.986</ele>
        <time>2018-12-29T00:54:36Z</time>
      </trkpt>
      <trkpt lat="35.497830" lon="-112.174100">
        <ele>1875.431</ele>
        <time>2018-12-29T00:54:56Z</time>
      </trkpt>
      <trkpt lat="35.497400" lon="-112.174130">
        <ele>1873.612</ele>
        <time>2018-12-29T00:55:16Z</time>
      </trkpt>
      <trkpt lat="35.496670" lon="-112.174180">
        <ele>1872.547</ele>
        <time>2018-12-29T00:55:36Z</time>
      </trkpt>
      <trkpt lat="35.496040" lon="-112.174220">
        <ele>1871.737</ele>
        <time>2018-12-29T00:55:56Z</time>
      </trkpt>
      <trkpt lat="35.495790" lon="-112.174230">
        <ele>1871.369</ele>
        <time>2018-12-29T00:56:16Z</time>
      </trkpt>
      <trkpt lat="35.495410" lon="-112.174250">
        <ele>1872.323</ele>
        <time>2018-12-29T00:56:36Z</time>
      </trkpt>
      <trkpt lat="35.494980" lon="-112.174280">
        <ele>1872.474</ele>
        <time>2018-12-29T00:56:56Z</time>
      </trkpt>
      <trkpt lat="35.493990" lon="-112.174340">
        <ele>1872.756</ele>
        <time>2018-12-29T00:57:16Z</time>
      </trkpt>
      <trkpt lat="35.493030" lon="-112.174400">
        <ele>1874.421</ele>
        <time>2018-12-29T00:57:36Z</time>
      </trkpt>
      <trkpt lat="35.491790" lon="-112.174480">
        <ele>1876.808</ele>
        <time>2018-12-29T00:57:56Z</time>
      </trkpt>
      <trkpt lat="35.491560" lon="-112.174490">
        <ele>1877.310</ele>
        <time>2018-12-29T00:58:16Z</time>
      </trkpt>
      <trkpt lat="35.490880" lon="-112.174530">
        <ele>1878.658</ele>
        <time>2018-12-29T00:58:36Z</time>
      </trkpt>
      <trkpt lat="35.490390" lon="-112.174560">
        <ele>1879.293</ele>
        <time>2018-12-29T00:58:56Z</time>
      </trkpt>
      <trkpt lat="35.489980" lon="-112.174590">
        <ele>1879.354</ele>
        <time>2018-12-29T00:59:16Z</time>
      </trkpt>
      <trkpt lat="35.489260" lon="-112.174630">
        <ele>1879.579</ele>
        <time>2018-12-29T00:59:36Z</time>
      </trkpt>
      <trkpt lat="35.488830" lon="-112.174660">
        <ele>1878.539</ele>
        <time>2018-12-29T00:59:56Z</time>
      </trkpt>
      <trkpt lat="35.488240" lon="-112.174740">
        <ele>1875.661</ele>
        <time>2018-12-29T01:00:16Z</time>
      </trkpt>
      <trkpt lat="35.487630" lon="-112.174850">
        <ele>1873.295</ele>
        <time>2018-12-29T01:00:36Z</time>
      </trkpt>
      <trkpt lat="35.487190" lon="-112.174940">
        <ele>1871.465</ele>
        <time>2018-12-29T01:00:56Z</time>
      </trkpt>
      <trkpt lat="35.486780" lon="-112.175050">
        <ele>1869.268</ele>
        <time>2018-12-29T01:01:16Z</time>
      </trkpt>
      <trkpt lat="35.486430" lon="-112.175150">
        <ele>1867.514</ele>
        <time>2018-12-29T01:01:36Z</time>
      </trkpt>
      <trkpt lat="35.485530" lon="-112.175390">
        <ele>1864.608</ele>
        <time>2018-12-29T01:01:56Z</time>
      </trkpt>
      <trkpt lat="35.485000" lon="-112.175540">
        <ele>1862.029</ele>
        <time>2018-12-29T01:02:16Z</time>
      </trkpt>
      <trkpt lat="35.484640" lon="-112.175660">
        <ele>1857.987</ele>
        <time>2018-12-29T01:02:36Z</time>
      </trkpt>
      <trkpt lat="35.484330" lon="-112.175770">
        <ele>1853.942</ele>
        <time>2018-12-29T01:02:56Z</time>
      </trkpt>
      <trkpt lat="35.483330" lon="-112.176040">
        <ele>1860.183</ele>
        <time>2018-12-29T01:03:16Z</time>
      </trkpt>
      <trkpt lat="35.482630" lon="-112.176220">
        <ele>1863.578</ele>
        <time>2018-12-29T01:03:36Z</time>
      </trkpt>
      <trkpt lat="35.482250" lon="-112.176330">
        <ele>1865.038</ele>
        <time>2018-12-29T01:03:56Z</time>
      </trkpt>
      <trkpt lat="35.481800" lon="-112.176450">
        <ele>1865.870</ele>
        <time>2018-12-29T01:04:16Z</time>
      </trkpt>
      <trkpt lat="35.481670" lon="-112.176490">
        <ele>1866.184</ele>
        <time>2018-12-29T01:04:36Z</time>
      </trkpt>
      <trkpt lat="35.481520" lon="-112.176530">
        <ele>1866.586</ele>
        <time>2018-12-29T01:04:56Z</time>
      </trkpt>
      <trkpt lat="35.480670" lon="-112.176790">
        <ele>1867.560</ele>
        <time>2018-12-29T01:05:16Z</time>
      </trkpt>
      <trkpt lat="35.480580" lon="-112.176810">
        <ele>1867.826</ele>
        <time>2018-12-29T01:05:36Z</time>
      </trkpt>
      <trkpt lat="35.480120" lon="-112.176940">
        <ele>1869.408</ele>
        <time>2018-12-29T01:05:56Z</time>
      </trkpt>
      <trkpt lat="35.479790" lon="-112.177040">
        <ele>1870.031</ele>
        <time>2018-12-29T01:06:16Z</time>
      </trkpt>
      <trkpt lat="35.479290" lon="-112.177180">
        <ele>1871.019</ele>
        <time>2018-12-29T01:06:36Z</time>
      </trkpt>
      <trkpt lat="35.479020" lon="-112.177250">
        <ele>1872.014</ele>
        <time>2018-12-29T01:06:56Z</time>
      </trkpt>
      <trkpt lat="35.478540" lon="-112.177380">
        <ele>1873.145</ele>
        <time>2018-12-29T01:07:16Z</time>
      </trkpt>
      <trkpt lat="35.478320" lon="-112.177420">
        <ele>1873.480</ele>
        <time>2018-12-29T01:07:36Z</time>
      </trkpt>
      <trkpt lat="35.478210" lon="-112.177440">
        <ele>1873.590</ele>
        <time>2018-12-29T01:07:56Z</time>
      </trkpt>
      <trkpt lat="35.478040" lon="-112.177470">
        <ele>1873.732</ele>
        <time>2018-12-29T01:08:16Z</time>
      </trkpt>
      <trkpt lat="35.477830" lon="-112.177490">
        <ele>1874.126</ele>
        <time>2018-12-29T01:08:36Z</time>
      </trkpt>
      <trkpt lat="35.477550" lon="-112.177520">
        <ele>1874.849</ele>
        <time>2018-12-29T01:08:56Z</time>
      </trkpt>
      <trkpt lat="35.477420" lon="-112.177520">
        <ele>1875.302</ele>
        <time>2018-12-29T01:09:16Z</time>
      </trkpt>
      <trkpt lat="35.477160" lon="-112.177530">
        <ele>1876.222</ele>
        <time>2018-12-29T01:09:36Z</time>
      </trkpt>
      <trkpt lat="35.476900" lon="-112.177520">
        <ele>1877.008</ele>
        <time>2018-12-29T01:09:56Z</time>
      </trkpt>
      <trkpt lat="35.476670" lon="-112.177500">
        <ele>1877.727</ele>
        <time>2018-12-29T01:10:16Z</time>
      </trkpt>
      <trkpt lat="35.476450" lon="-112.177490">
        <ele>1878.125</ele>
        <time>2018-12-29T01:10:36Z</time>
      </trkpt>
      <trkpt lat="35.476220" lon="-112.177460">
        <ele>1878.840</ele>
        <time>2018-12-29T01:10:56Z</time>
      </trkpt>
      <trkpt lat="35.475810" lon="-112.177390">
        <ele>1879.331</ele>
        <time>2018-12-29T01:11:16Z</time>
      </trkpt>
      <trkpt lat="35.475630" lon="-112.177350">
        <ele>1879.366</ele>
        <time>2018-12-29T01:11:36Z</time>
      </trkpt>
      <trkpt lat="35.475480" lon="-112.177310">
        <ele>1879.346</ele>
        <time>2018-12-29T01:11:56Z</time>
      </trkpt>
      <trkpt lat="35.475350" lon="-112.177280">
        <ele>1879.398</ele>
        <time>2018-12-29T01:12:16Z</time>
      </trkpt>
      <trkpt lat="35.475150" lon="-112.177220">
        <ele>1879.482</ele>
        <time>2018-12-29T01:12:36Z</time>
      </trkpt>
      <trkpt lat="35.475000" lon="-112.177170">
        <ele>1879.558</ele>
        <time>2018-12-29T01:12:56Z</time>
      </trkpt>
      <trkpt lat="35.474780" lon="-112.177090">
        <ele>1879.752</ele>
        <time>2018-12-29T01:13:16Z</time>
      </trkpt>
      <trkpt lat="35.474440" lon="-112.176950">
        <ele>1879.917</ele>
        <time>2018-12-29T01:13:36Z</time>
      </trkpt>
      <trkpt lat="35.474230" lon="-112.176850">
        <ele>1880.008</ele>
        <time>2018-12-29T01:13:56Z</time>
      </trkpt>
      <trkpt lat="35.474000" lon="-112.176740">
        <ele>1880.138</ele>
        <time>2018-12-29T01:14:16Z</time>
      </trkpt>
      <trkpt lat="35.472830" lon="-112.176120">
        <ele>1879.876</ele>
        <time>2018-12-29T01:14:36Z</time>
      </trkpt>
      <trkpt lat="35.472500" lon="-112.175940">
        <ele>1879.261</ele>
        <time>2018-12-29T01:14:56Z</time>
      </trkpt>
      <trkpt lat="35.471750" lon="-112.175550">
        <ele>1875.922</ele>
        <time>2018-12-29T01:15:16Z</time>
      </trkpt>
      <trkpt lat="35.471260" lon="-112.175310">
        <ele>1872.727</ele>
        <time>2018-12-29T01:15:36Z</time>
      </trkpt>
      <trkpt lat="35.470500" lon="-112.174900">
        <ele>1874.647</ele>
        <time>2018-12-29T01:15:56Z</time>
      </trkpt>
      <trkpt lat="35.470390" lon="-112.174850">
        <ele>1874.349</ele>
        <time>2018-12-29T01:16:16Z</time>
      </trkpt>
      <trkpt lat="35.469380" lon="-112.174380">
        <ele>1868.443</ele>
        <time>2018-12-29T01:16:36Z</time>
      </trkpt>
      <trkpt lat="35.469040" lon="-112.174220">
        <ele>1867.897</ele>
        <time>2018-12-29T01:16:56Z</time>
      </trkpt>
      <trkpt lat="35.468030" lon="-112.173780">
        <ele>1864.623</ele>
        <time>2018-12-29T01:17:16Z</time>
      </trkpt>
      <trkpt lat="35.467430" lon="-112.173550">
        <ele>1863.925</ele>
        <time>2018-12-29T01:17:36Z</time>
      </trkpt>
      <trkpt lat="35.466700" lon="-112.173270">
        <ele>1864.408</ele>
        <time>2018-12-29T01:17:56Z</time>
      </trkpt>
      <trkpt lat="35.466070" lon="-112.173040">
        <ele>1864.892</ele>
        <time>2018-12-29T01:18:16Z</time>
      </trkpt>
      <trkpt lat="35.465220" lon="-112.172750">
        <ele>1865.080</ele>
        <time>2018-12-29T01:18:36Z</time>
      </trkpt>
      <trkpt lat="35.464900" lon="-112.172650">
        <ele>1865.155</ele>
        <time>2018-12-29T01:18:56Z</time>
      </trkpt>
      <trkpt lat="35.464470" lon="-112.172520">
        <ele>1865.576</ele>
        <time>2018-12-29T01:19:16Z</time>
      </trkpt>
      <trkpt lat="35.464160" lon="-112.172420">
        <ele>1865.661</ele>
        <time>2018-12-29T01:19:36Z</time>
      </trkpt>
      <trkpt lat="35.463730" lon="-112.172300">
        <ele>1866.011</ele>
        <time>2018-12-29T01:19:56Z</time>
      </trkpt>
      <trkpt lat="35.463190" lon="-112.172140">
        <ele>1867.613</ele>
        <time>2018-12-29T01:20:16Z</time>
      </trkpt>
      <trkpt lat="35.462450" lon="-112.171930">
        <ele>1868.727</ele>
        <time>2018-12-29T01:20:36Z</time>
      </trkpt>
      <trkpt lat="35.461150" lon="-112.171550">
        <ele>1872.427</ele>
        <time>2018-12-29T01:20:56Z</time>
      </trkpt>
      <trkpt lat="35.459690" lon="-112.171150">
        <ele>1872.368</ele>
        <time>2018-12-29T01:21:16Z</time>
      </trkpt>
      <trkpt lat="35.459040" lon="-112.170960">
        <ele>1872.414</ele>
        <time>2018-12-29T01:21:36Z</time>
      </trkpt>
      <trkpt lat="35.458040" lon="-112.170680">
        <ele>1872.508</ele>
        <time>2018-12-29T01:21:56Z</time>
      </trkpt>
      <trkpt lat="35.457780" lon="-112.170620">
        <ele>1872.545</ele>
        <time>2018-12-29T01:22:16Z</time>
      </trkpt>
      <trkpt lat="35.457550" lon="-112.170560">
        <ele>1872.733</ele>
        <time>2018-12-29T01:22:36Z</time>
      </trkpt>
      <trkpt lat="35.457390" lon="-112.170530">
        <ele>1873.018</ele>
        <time>2018-12-29T01:22:56Z</time>
      </trkpt>
      <trkpt lat="35.457020" lon="-112.170460">
        <ele>1874.069</ele>
        <time>2018-12-29T01:23:16Z</time>
      </trkpt>
      <trkpt lat="35.456890" lon="-112.170440">
        <ele>1874.384</ele>
        <time>2018-12-29T01:23:36Z</time>
      </trkpt>
      <trkpt lat="35.456630" lon="-112.170410">
        <ele>1875.064</ele>
        <time>2018-12-29T01:23:56Z</time>
      </trkpt>
      <trkpt lat="35.456510" lon="-112.170400">
        <ele>1875.496</ele>
        <time>2018-12-29T01:24:16Z</time>
      </trkpt>
      <trkpt lat="35.456160" lon="-112.170380">
        <ele>1876.270</ele>
        <time>2018-12-29T01:24:36Z</time>
      </trkpt>
      <trkpt lat="35.455960" lon="-112.170370">
        <ele>1876.671</ele>
        <time>2018-12-29T01:24:56Z</time>
      </trkpt>
      <trkpt lat="35.455760" lon="-112.170370">
        <ele>1877.041</ele>
        <time>2018-12-29T01:25:16Z</time>
      </trkpt>
      <trkpt lat="35.455420" lon="-112.170380">
        <ele>1877.615</ele>
        <time>2018-12-29T01:25:36Z</time>
      </trkpt>
      <trkpt lat="35.455230" lon="-112.170390">
        <ele>1877.908</ele>
        <time>2018-12-29T01:25:56Z</time>
      </trkpt>
      <trkpt lat="35.455100" lon="-112.170400">
        <ele>1878.170</ele>
        <time>2018-12-29T01:26:16Z</time>
      </trkpt>
      <trkpt lat="35.454870" lon="-112.170430">
        <ele>1878.588</ele>
        <time>2018-12-29T01:26:36Z</time>
      </trkpt>
      <trkpt lat="35.449710" lon="-112.171120">
        <ele>1894.363</ele>
        <time>2018-12-29T01:26:56Z</time>
      </trkpt>
      <trkpt lat="35.448800" lon="-112.171230">
        <ele>1897.064</ele>
        <time>2018-12-29T01:27:16Z</time>
      </trkpt>
      <trkpt lat="35.447600" lon="-112.171390">
        <ele>1897.739</ele>
        <time>2018-12-29T01:27:36Z</time>
      </trkpt>
      <trkpt lat="35.446960" lon="-112.171480">
        <ele>1897.999</ele>
        <time>2018-12-29T01:27:56Z</time>
      </trkpt>
      <trkpt lat="35.446330" lon="-112.171550">
        <ele>1898.131</ele>
        <time>2018-12-29T01:28:16Z</time>
      </trkpt>
      <trkpt lat="35.446040" lon="-112.171580">
        <ele>1898.275</ele>
        <time>2018-12-29T01:28:36Z</time>
      </trkpt>
      <trkpt lat="35.445850" lon="-112.171600">
        <ele>1898.387</ele>
        <time>2018-12-29T01:28:56Z</time>
      </trkpt>
      <trkpt lat="35.445230" lon="-112.171650">
        <ele>1898.542</ele>
        <time>2018-12-29T01:29:16Z</time>
      </trkpt>
      <trkpt lat="35.444550" lon="-112.171670">
        <ele>1898.626</ele>
        <time>2018-12-29T01:29:36Z</time>
      </trkpt>
      <trkpt lat="35.443780" lon="-112.171690">
        <ele>1898.408</ele>
        <time>2018-12-29T01:29:56Z</time>
      </trkpt>
      <trkpt lat="35.443140" lon="-112.171690">
        <ele>1897.631</ele>
        <time>2018-12-29T01:30:16Z</time>
      </trkpt>
      <trkpt lat="35.442570" lon="-112.171670">
        <ele>1897.859</ele>
        <time>2018-12-29T01:30:36Z</time>
      </trkpt>
      <trkpt lat="35.442470" lon="-112.171670">
        <ele>1898.054</ele>
        <time>2018-12-29T01:30:56Z</time>
      </trkpt>
      <trkpt lat="35.439330" lon="-112.171490">
        <ele>1905.965</ele>
        <time>2018-12-29T01:31:16Z</time>
      </trkpt>
      <trkpt lat="35.438840" lon="-112.171460">
        <ele>1906.920</ele>
        <time>2018-12-29T01:31:36Z</time>
      </trkpt>
      <trkpt lat="35.437530" lon="-112.171390">
        <ele>1911.170</ele>
        <time>2018-12-29T01:31:56Z</time>
      </trkpt>
      <trkpt lat="35.437110" lon="-112.171360">
        <ele>1913.762</ele>
        <time>2018-12-29T01:32:16Z</time>
      </trkpt>
      <trkpt lat="35.434770" lon="-112.171240">
        <ele>1925.456</ele>
        <time>2018-12-29T01:32:36Z</time>
      </trkpt>
      <trkpt lat="35.432630" lon="-112.171130">
        <ele>1928.777</ele>
        <time>2018-12-29T01:32:56Z</time>
      </trkpt>
      <trkpt lat="35.431120" lon="-112.171040">
        <ele>1931.461</ele>
        <time>2018-12-29T01:33:16Z</time>
      </trkpt>
      <trkpt lat="35.429820" lon="-112.170970">
        <ele>1933.327</ele>
        <time>2018-12-29T01:33:36Z</time>
      </trkpt>
      <trkpt lat="35.428190" lon="-112.170910">
        <ele>1923.008</ele>
        <time>2018-12-29T01:33:56Z</time>
      </trkpt>
      <trkpt lat="35.427720" lon="-112.170880">
        <ele>1923.180</ele>
        <time>2018-12-29T01:34:16Z</time>
      </trkpt>
      <trkpt lat="35.426500" lon="-112.170790">
        <ele>1929.698</ele>
        <time>2018-12-29T01:34:36Z</time>
      </trkpt>
      <trkpt lat="35.424170" lon="-112.170660">
        <ele>1940.453</ele>
        <time>2018-12-29T01:34:56Z</time>
      </trkpt>
      <trkpt lat="35.422550" lon="-112.170590">
        <ele>1946.264</ele>
        <time>2018-12-29T01:35:16Z</time>
      </trkpt>
      <trkpt lat="35.417390" lon="-112.170310">
        <ele>1973.779</ele>
        <time>2018-12-29T01:35:36Z</time>
      </trkpt>
      <trkpt lat="35.415740" lon="-112.170230">
        <ele>1973.969</ele>
        <time>2018-12-29T01:35:56Z</time>
      </trkpt>
      <trkpt lat="35.414280" lon="-112.170150">
        <ele>1973.381</ele>
        <time>2018-12-29T01:36:16Z</time>
      </trkpt>
      <trkpt lat="35.410960" lon="-112.169970">
        <ele>1970.735</ele>
        <time>2018-12-29T01:36:36Z</time>
      </trkpt>
      <trkpt lat="35.409750" lon="-112.169910">
        <ele>1964.981</ele>
        <time>2018-12-29T01:36:56Z</time>
      </trkpt>
      <trkpt lat="35.408930" lon="-112.169860">
        <ele>1968.061</ele>
        <time>2018-12-29T01:37:16Z</time>
      </trkpt>
      <trkpt lat="35.408530" lon="-112.169830">
        <ele>1969.617</ele>
        <time>2018-12-29T01:37:36Z</time>
      </trkpt>
      <trkpt lat="35.408430" lon="-112.169830">
        <ele>1970.008</ele>
        <time>2018-12-29T01:37:56Z</time>
      </trkpt>
      <trkpt lat="35.408050" lon="-112.169810">
        <ele>1971.141</ele>
        <time>2018-12-29T01:38:16Z</time>
      </trkpt>
      <trkpt lat="35.406790" lon="-112.169750">
        <ele>1970.159</ele>
        <time>2018-12-29T01:38:36Z</time>
      </trkpt>
      <trkpt lat="35.406260" lon="-112.169730">
        <ele>1970.084</ele>
        <time>2018-12-29T01:38:56Z</time>
      </trkpt>
      <trkpt lat="35.405930" lon="-112.169720">
        <ele>1970.725</ele>
        <time>2018-12-29T01:39:16Z</time>
      </trkpt>
      <trkpt lat="35.405760" lon="-112.169710">
        <ele>1972.150</ele>
        <time>2018-12-29T01:39:36Z</time>
      </trkpt>
      <trkpt lat="35.405560" lon="-112.169690">
        <ele>1974.550</ele>
        <time>2018-12-29T01:39:56Z</time>
      </trkpt>
      <trkpt lat="35.405500" lon="-112.169680">
        <ele>1975.452</ele>
        <time>2018-12-29T01:40:16Z</time>
      </trkpt>
      <trkpt lat="35.405130" lon="-112.169670">
        <ele>1978.276</ele>
        <time>2018-12-29T01:40:36Z</time>
      </trkpt>
      <trkpt lat="35.404880" lon="-112.169650">
        <ele>1980.326</ele>
        <time>2018-12-29T01:40:56Z</time>
      </trkpt>
      <trkpt lat="35.404390" lon="-112.169620">
        <ele>1984.547</ele>
        <time>2018-12-29T01:41:16Z</time>
      </trkpt>
      <trkpt lat="35.403960" lon="-112.169580">
        <ele>1988.611</ele>
        <time>2018-12-29T01:41:36Z</time>
      </trkpt>
      <trkpt lat="35.403550" lon="-112.169560">
        <ele>1990.208</ele>
        <time>2018-12-29T01:41:56Z</time>
      </trkpt>
      <trkpt lat="35.403270" lon="-112.169540">
        <ele>1990.865</ele>
        <time>2018-12-29T01:42:16Z</time>
      </trkpt>
      <trkpt lat="35.403070" lon="-112.169530">
        <ele>1991.373</ele>
        <time>2018-12-29T01:42:36Z</time>
      </trkpt>
      <trkpt lat="35.402380" lon="-112.169490">
        <ele>1992.088</ele>
        <time>2018-12-29T01:42:56Z</time>
      </trkpt>
      <trkpt lat="35.401840" lon="-112.169460">
        <ele>1991.919</ele>
        <time>2018-12-29T01:43:16Z</time>
      </trkpt>
      <trkpt lat="35.401510" lon="-112.169440">
        <ele>1991.734</ele>
        <time>2018-12-29T01:43:36Z</time>
      </trkpt>
      <trkpt lat="35.401410" lon="-112.169420">
        <ele>1991.674</ele>
        <time>2018-12-29T01:43:56Z</time>
      </trkpt>
      <trkpt lat="35.400410" lon="-112.169390">
        <ele>1989.266</ele>
        <time>2018-12-29T01:44:16Z</time>
      </trkpt>
      <trkpt lat="35.400260" lon="-112.169380">
        <ele>1989.050</ele>
        <time>2018-12-29T01:44:36Z</time>
      </trkpt>
      <trkpt lat="35.400090" lon="-112.169370">
        <ele>1988.658</ele>
        <time>2018-12-29T01:44:56Z</time>
      </trkpt>
      <trkpt lat="35.399790" lon="-112.169360">
        <ele>1986.952</ele>
        <time>2018-12-29T01:45:16Z</time>
      </trkpt>
      <trkpt lat="35.399370" lon="-112.169320">
        <ele>1984.617</ele>
        <time>2018-12-29T01:45:36Z</time>
      </trkpt>
      <trkpt lat="35.399320" lon="-112.169310">
        <ele>1984.308</ele>
        <time>2018-12-29T01:45:56Z</time>
      </trkpt>
      <trkpt lat="35.398790" lon="-112.169230">
        <ele>1983.418</ele>
        <time>2018-12-29T01:46:16Z</time>
      </trkpt>
      <trkpt lat="35.398220" lon="-112.169110">
        <ele>1984.126</ele>
        <time>2018-12-29T01:46:36Z</time>
      </trkpt>
      <trkpt lat="35.397640" lon="-112.168980">
        <ele>1984.711</ele>
        <time>2018-12-29T01:46:56Z</time>
      </trkpt>
      <trkpt lat="35.397350" lon="-112.168890">
        <ele>1984.992</ele>
        <time>2018-12-29T01:47:16Z</time>
      </trkpt>
      <trkpt lat="35.396840" lon="-112.168730">
        <ele>1985.187</ele>
        <time>2018-12-29T01:47:36Z</time>
      </trkpt>
      <trkpt lat="35.396460" lon="-112.168600">
        <ele>1985.347</ele>
        <time>2018-12-29T01:47:56Z</time>
      </trkpt>
      <trkpt lat="35.396170" lon="-112.168480">
        <ele>1985.299</ele>
        <time>2018-12-29T01:48:16Z</time>
      </trkpt>
      <trkpt lat="35.395770" lon="-112.168310">
        <ele>1984.313</ele>
        <time>2018-12-29T01:48:36Z</time>
      </trkpt>
      <trkpt lat="35.394790" lon="-112.167910">
        <ele>1979.927</ele>
        <time>2018-12-29T01:48:56Z</time>
      </trkpt>
      <trkpt lat="35.394020" lon="-112.167570">
        <ele>1977.168</ele>
        <time>2018-12-29T01:49:16Z</time>
      </trkpt>
      <trkpt lat="35.387930" lon="-112.165000">
        <ele>1973.014</ele>
        <time>2018-12-29T01:49:36Z</time>
      </trkpt>
      <trkpt lat="35.381590" lon="-112.162310">
        <ele>1981.608</ele>
        <time>2018-12-29T01:49:56Z</time>
      </trkpt>
      <trkpt lat="35.381190" lon="-112.162140">
        <ele>1982.145</ele>
        <time>2018-12-29T01:50:16Z</time>
      </trkpt>
      <trkpt lat="35.380900" lon="-112.162020">
        <ele>1982.293</ele>
        <time>2018-12-29T01:50:36Z</time>
      </trkpt>
      <trkpt lat="35.380680" lon="-112.161940">
        <ele>1982.368</ele>
        <time>2018-12-29T01:50:56Z</time>
      </trkpt>
      <trkpt lat="35.380480" lon="-112.161870">
        <ele>1982.819</ele>
        <time>2018-12-29T01:51:16Z</time>
      </trkpt>
      <trkpt lat="35.380250" lon="-112.161800">
        <ele>1983.924</ele>
        <time>2018-12-29T01:51:36Z</time>
      </trkpt>
      <trkpt lat="35.380060" lon="-112.161740">
        <ele>1984.634</ele>
        <time>2018-12-29T01:51:56Z</time>
      </trkpt>
      <trkpt lat="35.379840" lon="-112.161680">
        <ele>1985.076</ele>
        <time>2018-12-29T01:52:16Z</time>
      </trkpt>
      <trkpt lat="35.379580" lon="-112.161630">
        <ele>1985.030</ele>
        <time>2018-12-29T01:52:36Z</time>
      </trkpt>
      <trkpt lat="35.379360" lon="-112.161590">
        <ele>1985.041</ele>
        <time>2018-12-29T01:52:56Z</time>
      </trkpt>
      <trkpt lat="35.379160" lon="-112.161570">
        <ele>1984.881</ele>
        <time>2018-12-29T01:53:16Z</time>
      </trkpt>
      <trkpt lat="35.378970" lon="-112.161550">
        <ele>1984.609</ele>
        <time>2018-12-29T01:53:36Z</time>
      </trkpt>
      <trkpt lat="35.378810" lon="-112.161540">
        <ele>1984.608</ele>
        <time>2018-12-29T01:53:56Z</time>
      </trkpt>
      <trkpt lat="35.378650" lon="-112.161530">
        <ele>1984.597</ele>
        <time>2018-12-29T01:54:16Z</time>
      </trkpt>
      <trkpt lat="35.378480" lon="-112.161530">
        <ele>1984.415</ele>
        <time>2018-12-29T01:54:36Z</time>
      </trkpt>
      <trkpt lat="35.378270" lon="-112.161530">
        <ele>1984.070</ele>
        <time>2018-12-29T01:54:56Z</time>
      </trkpt>
      <trkpt lat="35.378140" lon="-112.161540">
        <ele>1983.851</ele>
        <time>2018-12-29T01:55:16Z</time>
      </trkpt>
      <trkpt lat="35.378010" lon="-112.161540">
        <ele>1983.696</ele>
        <time>2018-12-29T01:55:36Z</time>
      </trkpt>
      <trkpt lat="35.377820" lon="-112.161560">
        <ele>1983.396</ele>
        <time>2018-12-29T01:55:56Z</time>
      </trkpt>
      <trkpt lat="35.377660" lon="-112.161580">
        <ele>1983.238</ele>
        <time>2018-12-29T01:56:16Z</time>
      </trkpt>
      <trkpt lat="35.377470" lon="-112.161600">
        <ele>1983.132</ele>
        <time>2018-12-29T01:56:36Z</time>
      </trkpt>
      <trkpt lat="35.377280" lon="-112.161640">
        <ele>1983.095</ele>
        <time>2018-12-29T01:56:56Z</time>
      </trkpt>
      <trkpt lat="35.377070" lon="-112.161680">
        <ele>1982.949</ele>
        <time>2018-12-29T01:57:16Z</time>
      </trkpt>
      <trkpt lat="35.376840" lon="-112.161730">
        <ele>1982.623</ele>
        <time>2018-12-29T01:57:36Z</time>
      </trkpt>
      <trkpt lat="35.376590" lon="-112.161800">
        <ele>1982.408</ele>
        <time>2018-12-29T01:57:56Z</time>
      </trkpt>
      <trkpt lat="35.376390" lon="-112.161860">
        <ele>1982.242</ele>
        <time>2018-12-29T01:58:16Z</time>
      </trkpt>
      <trkpt lat="35.376000" lon="-112.161990">
        <ele>1981.820</ele>
        <time>2018-12-29T01:58:36Z</time>
      </trkpt>
      <trkpt lat="35.375610" lon="-112.162120">
        <ele>1981.615</ele>
        <time>2018-12-29T01:58:56Z</time>
      </trkpt>
      <trkpt lat="35.375150" lon="-112.162290">
        <ele>1981.986</ele>
        <time>2018-12-29T01:59:16Z</time>
      </trkpt>
      <trkpt lat="35.374630" lon="-112.162470">
        <ele>1982.641</ele>
        <time>2018-12-29T01:59:36Z</time>
      </trkpt>
      <trkpt lat="35.374020" lon="-112.162680">
        <ele>1982.361</ele>
        <time>2018-12-29T01:59:56Z</time>
      </trkpt>
      <trkpt lat="35.373350" lon="-112.162910">
        <ele>1981.693</ele>
        <time>2018-12-29T02:00:16Z</time>
      </trkpt>
      <trkpt lat="35.367620" lon="-112.164930">
        <ele>1985.347</ele>
        <time>2018-12-29T02:00:36Z</time>
      </trkpt>
      <trkpt lat="35.367360" lon="-112.165010">
        <ele>1985.546</ele>
        <time>2018-12-29T02:00:56Z</time>
      </trkpt>
      <trkpt lat="35.366450" lon="-112.165320">
        <ele>1986.088</ele>
        <time>2018-12-29T02:01:16Z</time>
      </trkpt>
      <trkpt lat="35.365750" lon="-112.165560">
        <ele>1986.416</ele>
        <time>2018-12-29T02:01:36Z</time>
      </trkpt>
      <trkpt lat="35.365490" lon="-112.165640">
        <ele>1986.508</ele>
        <time>2018-12-29T02:01:56Z</time>
      </trkpt>
      <trkpt lat="35.364890" lon="-112.165850">
        <ele>1986.857</ele>
        <time>2018-12-29T02:02:16Z</time>
      </trkpt>
      <trkpt lat="35.364260" lon="-112.166070">
        <ele>1987.375</ele>
        <time>2018-12-29T02:02:36Z</time>
      </trkpt>
      <trkpt lat="35.363590" lon="-112.166310">
        <ele>1987.960</ele>
        <time>2018-12-29T02:02:56Z</time>
      </trkpt>
      <trkpt lat="35.363270" lon="-112.166420">
        <ele>1988.361</ele>
        <time>2018-12-29T02:03:16Z</time>
      </trkpt>
      <trkpt lat="35.362540" lon="-112.166670">
        <ele>1988.526</ele>
        <time>2018-12-29T02:03:36Z</time>
      </trkpt>
      <trkpt lat="35.362100" lon="-112.166800">
        <ele>1989.276</ele>
        <time>2018-12-29T02:03:56Z</time>
      </trkpt>
      <trkpt lat="35.361980" lon="-112.166840">
        <ele>1989.378</ele>
        <time>2018-12-29T02:04:16Z</time>
      </trkpt>
      <trkpt lat="35.361700" lon="-112.166910">
        <ele>1989.792</ele>
        <time>2018-12-29T02:04:36Z</time>
      </trkpt>
      <trkpt lat="35.361360" lon="-112.166990">
        <ele>1990.363</ele>
        <time>2018-12-29T02:04:56Z</time>
      </trkpt>
      <trkpt lat="35.361030" lon="-112.167060">
        <ele>1991.344</ele>
        <time>2018-12-29T02:05:16Z</time>
      </trkpt>
      <trkpt lat="35.360780" lon="-112.167100">
        <ele>1992.018</ele>
        <time>2018-12-29T02:05:36Z</time>
      </trkpt>
      <trkpt lat="35.360560" lon="-112.167140">
        <ele>1992.508</ele>
        <time>2018-12-29T02:05:56Z</time>
      </trkpt>
      <trkpt lat="35.360300" lon="-112.167180">
        <ele>1993.049</ele>
        <time>2018-12-29T02:06:16Z</time>
      </trkpt>
      <trkpt lat="35.360040" lon="-112.167210">
        <ele>1993.257</ele>
        <time>2018-12-29T02:06:36Z</time>
      </trkpt>
      <trkpt lat="35.359690" lon="-112.167240">
        <ele>1993.532</ele>
        <time>2018-12-29T02:06:56Z</time>
      </trkpt>
      <trkpt lat="35.359280" lon="-112.167270">
        <ele>1993.783</ele>
        <time>2018-12-29T02:07:16Z</time>
      </trkpt>
      <trkpt lat="35.358810" lon="-112.167290">
        <ele>1993.988</ele>
        <time>2018-12-29T02:07:36Z</time>
      </trkpt>
      <trkpt lat="35.358450" lon="-112.167300">
        <ele>1994.218</ele>
        <time>2018-12-29T02:07:56Z</time>
      </trkpt>
      <trkpt lat="35.358100" lon="-112.167290">
        <ele>1994.580</ele>
        <time>2018-12-29T02:08:16Z</time>
      </trkpt>
      <trkpt lat="35.357520" lon="-112.167260">
        <ele>1996.044</ele>
        <time>2018-12-29T02:08:36Z</time>
      </trkpt>
      <trkpt lat="35.356790" lon="-112.167210">
        <ele>1998.489</ele>
        <time>2018-12-29T02:08:56Z</time>
      </trkpt>
      <trkpt lat="35.355490" lon="-112.167140">
        <ele>2001.906</ele>
        <time>2018-12-29T02:09:16Z</time>
      </trkpt>
      <trkpt lat="35.354560" lon="-112.167090">
        <ele>2005.526</ele>
        <time>2018-12-29T02:09:36Z</time>
      </trkpt>
      <trkpt lat="35.353690" lon="-112.167040">
        <ele>2007.308</ele>
        <time>2018-12-29T02:09:56Z</time>
      </trkpt>
      <trkpt lat="35.352820" lon="-112.167000">
        <ele>2010.711</ele>
        <time>2018-12-29T02:10:16Z</time>
      </trkpt>
      <trkpt lat="35.351550" lon="-112.166930">
        <ele>2012.889</ele>
        <time>2018-12-29T02:10:36Z</time>
      </trkpt>
      <trkpt lat="35.350740" lon="-112.166880">
        <ele>2016.654</ele>
        <time>2018-12-29T02:10:56Z</time>
      </trkpt>
      <trkpt lat="35.350090" lon="-112.166850">
        <ele>2018.085</ele>
        <time>2018-12-29T02:11:16Z</time>
      </trkpt>
      <trkpt lat="35.348110" lon="-112.166750">
        <ele>2023.860</ele>
        <time>2018-12-29T02:11:36Z</time>
      </trkpt>
      <trkpt lat="35.347640" lon="-112.166730">
        <ele>2024.470</ele>
        <time>2018-12-29T02:11:56Z</time>
      </trkpt>
      <trkpt lat="35.346720" lon="-112.166670">
        <ele>2026.982</ele>
        <time>2018-12-29T02:12:16Z</time>
      </trkpt>
      <trkpt lat="35.346290" lon="-112.166630">
        <ele>2027.266</ele>
        <time>2018-12-29T02:12:36Z</time>
      </trkpt>
      <trkpt lat="35.346160" lon="-112.166620">
        <ele>2027.156</ele>
        <time>2018-12-29T02:12:56Z</time>
      </trkpt>
      <trkpt lat="35.345800" lon="-112.166570">
        <ele>2027.059</ele>
        <time>2018-12-29T02:13:16Z</time>
      </trkpt>
      <trkpt lat="35.345290" lon="-112.166440">
        <ele>2027.514</ele>
        <time>2018-12-29T02:13:36Z</time>
      </trkpt>
      <trkpt lat="35.344910" lon="-112.166330">
        <ele>2027.808</ele>
        <time>2018-12-29T02:13:56Z</time>
      </trkpt>
      <trkpt lat="35.344620" lon="-112.166230">
        <ele>2027.898</ele>
        <time>2018-12-29T02:14:16Z</time>
      </trkpt>
      <trkpt lat="35.344060" lon="-112.166000">
        <ele>2027.736</ele>
        <time>2018-12-29T02:14:36Z</time>
      </trkpt>
      <trkpt lat="35.343890" lon="-112.165900">
        <ele>2027.841</ele>
        <time>2018-12-29T02:14:56Z</time>
      </trkpt>
      <trkpt lat="35.343470" lon="-112.165670">
        <ele>2027.652</ele>
        <time>2018-12-29T02:15:16Z</time>
      </trkpt>
      <trkpt lat="35.343050" lon="-112.165400">
        <ele>2027.137</ele>
        <time>2018-12-29T02:15:36Z</time>
      </trkpt>
      <trkpt lat="35.342680" lon="-112.165130">
        <ele>2027.267</ele>
        <time>2018-12-29T02:15:56Z</time>
      </trkpt>
      <trkpt lat="35.340880" lon="-112.163770">
        <ele>2029.949</ele>
        <time>2018-12-29T02:16:16Z</time>
      </trkpt>
      <trkpt lat="35.340470" lon="-112.163450">
        <ele>2030.853</ele>
        <time>2018-12-29T02:16:36Z</time>
      </trkpt>
      <trkpt lat="35.339850" lon="-112.162990">
        <ele>2033.917</ele>
        <time>2018-12-29T02:16:56Z</time>
      </trkpt>
      <trkpt lat="35.339640" lon="-112.162810">
        <ele>2034.487</ele>
        <time>2018-12-29T02:17:16Z</time>
      </trkpt>
      <trkpt lat="35.339340" lon="-112.162570">
        <ele>2034.515</ele>
        <time>2018-12-29T02:17:36Z</time>
      </trkpt>
      <trkpt lat="35.337120" lon="-112.160890">
        <ele>2033.108</ele>
        <time>2018-12-29T02:17:56Z</time>
      </trkpt>
      <trkpt lat="35.336350" lon="-112.160310">
        <ele>2033.274</ele>
        <time>2018-12-29T02:18:16Z</time>
      </trkpt>
      <trkpt lat="35.336220" lon="-112.160210">
        <ele>2033.362</ele>
        <time>2018-12-29T02:18:36Z</time>
      </trkpt>
      <trkpt lat="35.335580" lon="-112.159740">
        <ele>2033.697</ele>
        <time>2018-12-29T02:18:56Z</time>
      </trkpt>
      <trkpt lat="35.335200" lon="-112.159500">
        <ele>2033.068</ele>
        <time>2018-12-29T02:19:16Z</time>
      </trkpt>
      <trkpt lat="35.334400" lon="-112.159030">
        <ele>2030.343</ele>
        <time>2018-12-29T02:19:36Z</time>
      </trkpt>
      <trkpt lat="35.333860" lon="-112.158740">
        <ele>2029.233</ele>
        <time>2018-12-29T02:19:56Z</time>
      </trkpt>
      <trkpt lat="35.331070" lon="-112.157320">
        <ele>2023.695</ele>
        <time>2018-12-29T02:20:16Z</time>
      </trkpt>
      <trkpt lat="35.330600" lon="-112.157080">
        <ele>2023.219</ele>
        <time>2018-12-29T02:20:36Z</time>
      </trkpt>
      <trkpt lat="35.329810" lon="-112.156680">
        <ele>2022.773</ele>
        <time>2018-12-29T02:20:56Z</time>
      </trkpt>
      <trkpt lat="35.329590" lon="-112.156580">
        <ele>2022.585</ele>
        <time>2018-12-29T02:21:16Z</time>
      </trkpt>
      <trkpt lat="35.328770" lon="-112.156150">
        <ele>2022.213</ele>
        <time>2018-12-29T02:21:36Z</time>
      </trkpt>
      <trkpt lat="35.328730" lon="-112.156130">
        <ele>2022.208</ele>
        <time>2018-12-29T02:21:56Z</time>
      </trkpt>
      <trkpt lat="35.328400" lon="-112.155960">
        <ele>2022.130</ele>
        <time>2018-12-29T02:22:16Z</time>
      </trkpt>
      <trkpt lat="35.328190" lon="-112.155870">
        <ele>2022.028</ele>
        <time>2018-12-29T02:22:36Z</time>
      </trkpt>
      <trkpt lat="35.327720" lon="-112.155620">
        <ele>2022.583</ele>
        <time>2018-12-29T02:22:56Z</time>
      </trkpt>
      <trkpt lat="35.326610" lon="-112.155070">
        <ele>2023.444</ele>
        <time>2018-12-29T02:23:16Z</time>
      </trkpt>
      <trkpt lat="35.325840" lon="-112.154680">
        <ele>2024.129</ele>
        <time>2018-12-29T02:23:36Z</time>
      </trkpt>
      <trkpt lat="35.325570" lon="-112.154520">
        <ele>2024.289</ele>
        <time>2018-12-29T02:23:56Z</time>
      </trkpt>
      <trkpt lat="35.324870" lon="-112.154170">
        <ele>2024.461</ele>
        <time>2018-12-29T02:24:16Z</time>
      </trkpt>
      <trkpt lat="35.324280" lon="-112.153870">
        <ele>2024.495</ele>
        <time>2018-12-29T02:24:36Z</time>
      </trkpt>
      <trkpt lat="35.323850" lon="-112.153650">
        <ele>2024.483</ele>
        <time>2018-12-29T02:24:56Z</time>
      </trkpt>
      <trkpt lat="35.323190" lon="-112.153320">
        <ele>2024.625</ele>
        <time>2018-12-29T02:25:16Z</time>
      </trkpt>
      <trkpt lat="35.322070" lon="-112.152750">
        <ele>2028.317</ele>
        <time>2018-12-29T02:25:36Z</time>
      </trkpt>
      <trkpt lat="35.321530" lon="-112.152480">
        <ele>2030.408</ele>
        <time>2018-12-29T02:25:56Z</time>
      </trkpt>
      <trkpt lat="35.321210" lon="-112.152310">
        <ele>2031.111</ele>
        <time>2018-12-29T02:26:16Z</time>
      </trkpt>
      <trkpt lat="35.320810" lon="-112.152080">
        <ele>2033.739</ele>
        <time>2018-12-29T02:26:36Z</time>
      </trkpt>
      <trkpt lat="35.320500" lon="-112.151880">
        <ele>2035.374</ele>
        <time>2018-12-29T02:26:56Z</time>
      </trkpt>
      <trkpt lat="35.320110" lon="-112.151630">
        <ele>2036.125</ele>
        <time>2018-12-29T02:27:16Z</time>
      </trkpt>
      <trkpt lat="35.319780" lon="-112.151400">
        <ele>2036.610</ele>
        <time>2018-12-29T02:27:36Z</time>
      </trkpt>
      <trkpt lat="35.319540" lon="-112.151230">
        <ele>2036.910</ele>
        <time>2018-12-29T02:27:56Z</time>
      </trkpt>
      <trkpt lat="35.319130" lon="-112.150930">
        <ele>2039.642</ele>
        <time>2018-12-29T02:28:16Z</time>
      </trkpt>
      <trkpt lat="35.318730" lon="-112.150640">
        <ele>2041.676</ele>
        <time>2018-12-29T02:28:36Z</time>
      </trkpt>
      <trkpt lat="35.318340" lon="-112.150360">
        <ele>2042.089</ele>
        <time>2018-12-29T02:28:56Z</time>
      </trkpt>
      <trkpt lat="35.317930" lon="-112.150060">
        <ele>2042.606</ele>
        <time>2018-12-29T02:29:16Z</time>
      </trkpt>
      <trkpt lat="35.317490" lon="-112.149750">
        <ele>2044.226</ele>
        <time>2018-12-29T02:29:36Z</time>
      </trkpt>
      <trkpt lat="35.317260" lon="-112.149590">
        <ele>2044.908</ele>
        <time>2018-12-29T02:29:56Z</time>
      </trkpt>
      <trkpt lat="35.316560" lon="-112.149140">
        <ele>2047.681</ele>
        <time>2018-12-29T02:30:16Z</time>
      </trkpt>
      <trkpt lat="35.315540" lon="-112.148600">
        <ele>2049.219</ele>
        <time>2018-12-29T02:30:36Z</time>
      </trkpt>
      <trkpt lat="35.315470" lon="-112.148570">
        <ele>2049.254</ele>
        <time>2018-12-29T02:30:56Z</time>
      </trkpt>
      <trkpt lat="35.315110" lon="-112.148410">
        <ele>2049.555</ele>
        <time>2018-12-29T02:31:16Z</time>
      </trkpt>
      <trkpt lat="35.314480" lon="-112.148140">
        <ele>2050.830</ele>
        <time>2018-12-29T02:31:36Z</time>
      </trkpt>
      <trkpt lat="35.312560" lon="-112.147350">
        <ele>2053.160</ele>
        <time>2018-12-29T02:31:56Z</time>
      </trkpt>
      <trkpt lat="35.312070" lon="-112.147150">
        <ele>2053.862</ele>
        <time>2018-12-29T02:32:16Z</time>
      </trkpt>
      <trkpt lat="35.310390" lon="-112.146460">
        <ele>2056.346</ele>
        <time>2018-12-29T02:32:36Z</time>
      </trkpt>
      <trkpt lat="35.309730" lon="-112.146190">
        <ele>2058.694</ele>
        <time>2018-12-29T02:32:56Z</time>
      </trkpt>
      <trkpt lat="35.309320" lon="-112.146010">
        <ele>2060.057</ele>
        <time>2018-12-29T02:33:16Z</time>
      </trkpt>
      <trkpt lat="35.308140" lon="-112.145520">
        <ele>2061.322</ele>
        <time>2018-12-29T02:33:36Z</time>
      </trkpt>
      <trkpt lat="35.306870" lon="-112.145020">
        <ele>2064.008</ele>
        <time>2018-12-29T02:33:56Z</time>
      </trkpt>
      <trkpt lat="35.306460" lon="-112.144840">
        <ele>2065.042</ele>
        <time>2018-12-29T02:34:16Z</time>
      </trkpt>
      <trkpt lat="35.305280" lon="-112.144360">
        <ele>2066.480</ele>
        <time>2018-12-29T02:34:36Z</time>
      </trkpt>
      <trkpt lat="35.304780" lon="-112.144150">
        <ele>2066.535</ele>
        <time>2018-12-29T02:34:56Z</time>
      </trkpt>
      <trkpt lat="35.302960" lon="-112.143400">
        <ele>2066.866</ele>
        <time>2018-12-29T02:35:16Z</time>
      </trkpt>
      <trkpt lat="35.301590" lon="-112.142840">
        <ele>2067.331</ele>
        <time>2018-12-29T02:35:36Z</time>
      </trkpt>
      <trkpt lat="35.301110" lon="-112.142640">
        <ele>2068.861</ele>
        <time>2018-12-29T02:35:56Z</time>
      </trkpt>
      <trkpt lat="35.300350" lon="-112.142330">
        <ele>2072.463</ele>
        <time>2018-12-29T02:36:16Z</time>
      </trkpt>
      <trkpt lat="35.299990" lon="-112.142190">
        <ele>2073.037</ele>
        <time>2018-12-29T02:36:36Z</time>
      </trkpt>
      <trkpt lat="35.299730" lon="-112.142100">
        <ele>2073.239</ele>
        <time>2018-12-29T02:36:56Z</time>
      </trkpt>
      <trkpt lat="35.299290" lon="-112.141950">
        <ele>2074.301</ele>
        <time>2018-12-29T02:37:16Z</time>
      </trkpt>
      <trkpt lat="35.298620" lon="-112.141780">
        <ele>2077.321</ele>
        <time>2018-12-29T02:37:36Z</time>
      </trkpt>
      <trkpt lat="35.298220" lon="-112.141690">
        <ele>2078.608</ele>
        <time>2018-12-29T02:37:56Z</time>
      </trkpt>
      <trkpt lat="35.297820" lon="-112.141610">
        <ele>2080.156</ele>
        <time>2018-12-29T02:38:16Z</time>
      </trkpt>
      <trkpt lat="35.297300" lon="-112.141520">
        <ele>2082.794</ele>
        <time>2018-12-29T02:38:36Z</time>
      </trkpt>
      <trkpt lat="35.297080" lon="-112.141490">
        <ele>2083.579</ele>
        <time>2018-12-29T02:38:56Z</time>
      </trkpt>
      <trkpt lat="35.296690" lon="-112.141450">
        <ele>2085.160</ele>
        <time>2018-12-29T02:39:16Z</time>
      </trkpt>
      <trkpt lat="35.296340" lon="-112.141420">
        <ele>2086.115</ele>
        <time>2018-12-29T02:39:36Z</time>
      </trkpt>
      <trkpt lat="35.295880" lon="-112.141380">
        <ele>2086.945</ele>
        <time>2018-12-29T02:39:56Z</time>
      </trkpt>
      <trkpt lat="35.295710" lon="-112.141380">
        <ele>2087.057</ele>
        <time>2018-12-29T02:40:16Z</time>
      </trkpt>
      <trkpt lat="35.295570" lon="-112.141370">
        <ele>2086.981</ele>
        <time>2018-12-29T02:40:36Z</time>
      </trkpt>
      <trkpt lat="35.294820" lon="-112.141370">
        <ele>2086.135</ele>
        <time>2018-12-29T02:40:56Z</time>
      </trkpt>
      <trkpt lat="35.294470" lon="-112.141390">
        <ele>2085.486</ele>
        <time>2018-12-29T02:41:16Z</time>
      </trkpt>
      <trkpt lat="35.294100" lon="-112.141420">
        <ele>2085.214</ele>
        <time>2018-12-29T02:41:36Z</time>
      </trkpt>
      <trkpt lat="35.293670" lon="-112.141480">
        <ele>2085.008</ele>
        <time>2018-12-29T02:41:56Z</time>
      </trkpt>
      <trkpt lat="35.293280" lon="-112.141550">
        <ele>2084.926</ele>
        <time>2018-12-29T02:42:16Z</time>
      </trkpt>
      <trkpt lat="35.292880" lon="-112.141640">
        <ele>2084.874</ele>
        <time>2018-12-29T02:42:36Z</time>
      </trkpt>
      <trkpt lat="35.292240" lon="-112.141820">
        <ele>2084.719</ele>
        <time>2018-12-29T02:42:56Z</time>
      </trkpt>
      <trkpt lat="35.291990" lon="-112.141900">
        <ele>2084.620</ele>
        <time>2018-12-29T02:43:16Z</time>
      </trkpt>
      <trkpt lat="35.291510" lon="-112.142080">
        <ele>2084.415</ele>
        <time>2018-12-29T02:43:36Z</time>
      </trkpt>
      <trkpt lat="35.291160" lon="-112.142230">
        <ele>2084.045</ele>
        <time>2018-12-29T02:43:56Z</time>
      </trkpt>
      <trkpt lat="35.290700" lon="-112.142440">
        <ele>2083.227</ele>
        <time>2018-12-29T02:44:16Z</time>
      </trkpt>
      <trkpt lat="35.290290" lon="-112.142630">
        <ele>2082.831</ele>
        <time>2018-12-29T02:44:36Z</time>
      </trkpt>
      <trkpt lat="35.289390" lon="-112.143060">
        <ele>2081.766</ele>
        <time>2018-12-29T02:44:56Z</time>
      </trkpt>
      <trkpt lat="35.288150" lon="-112.143630">
        <ele>2078.129</ele>
        <time>2018-12-29T02:45:16Z</time>
      </trkpt>
      <trkpt lat="35.287930" lon="-112.143730">
        <ele>2077.421</ele>
        <time>2018-12-29T02:45:36Z</time>
      </trkpt>
      <trkpt lat="35.287870" lon="-112.143760">
        <ele>2077.208</ele>
        <time>2018-12-29T02:45:56Z</time>
      </trkpt>
      <trkpt lat="35.286280" lon="-112.144510">
        <ele>2073.249</ele>
        <time>2018-12-29T02:46:16Z</time>
      </trkpt>
      <trkpt lat="35.285070" lon="-112.145080">
        <ele>2076.777</ele>
        <time>2018-12-29T02:46:36Z</time>
      </trkpt>
      <trkpt lat="35.284620" lon="-112.145290">
        <ele>2078.222</ele>
        <time>2018-12-29T02:46:56Z</time>
      </trkpt>
      <trkpt lat="35.284240" lon="-112.145460">
        <ele>2079.793</ele>
        <time>2018-12-29T02:47:16Z</time>
      </trkpt>
      <trkpt lat="35.284010" lon="-112.145540">
        <ele>2080.158</ele>
        <time>2018-12-29T02:47:36Z</time>
      </trkpt>
      <trkpt lat="35.283680" lon="-112.145650">
        <ele>2081.298</ele>
        <time>2018-12-29T02:47:56Z</time>
      </trkpt>
      <trkpt lat="35.283370" lon="-112.145740">
        <ele>2082.410</ele>
        <time>2018-12-29T02:48:16Z</time>
      </trkpt>
      <trkpt lat="35.282440" lon="-112.145970">
        <ele>2084.724</ele>
        <time>2018-12-29T02:48:36Z</time>
      </trkpt>
      <trkpt lat="35.281590" lon="-112.146180">
        <ele>2086.318</ele>
        <time>2018-12-29T02:48:56Z</time>
      </trkpt>
      <trkpt lat="35.281160" lon="-112.146290">
        <ele>2088.898</ele>
        <time>2018-12-29T02:49:16Z</time>
      </trkpt>
      <trkpt lat="35.278740" lon="-112.146910">
        <ele>2098.317</ele>
        <time>2018-12-29T02:49:36Z</time>
      </trkpt>
      <trkpt lat="35.276900" lon="-112.147380">
        <ele>2099.108</ele>
        <time>2018-12-29T02:49:56Z</time>
      </trkpt>
      <trkpt lat="35.273710" lon="-112.148190">
        <ele>2104.314</ele>
        <time>2018-12-29T02:50:16Z</time>
      </trkpt>
      <trkpt lat="35.272150" lon="-112.148590">
        <ele>2105.182</ele>
        <time>2018-12-29T02:50:36Z</time>
      </trkpt>
      <trkpt lat="35.271890" lon="-112.148650">
        <ele>2105.367</ele>
        <time>2018-12-29T02:50:56Z</time>
      </trkpt>
      <trkpt lat="35.271210" lon="-112.148810">
        <ele>2105.478</ele>
        <time>2018-12-29T02:51:16Z</time>
      </trkpt>
      <trkpt lat="35.270770" lon="-112.148920">
        <ele>2105.483</ele>
        <time>2018-12-29T02:51:36Z</time>
      </trkpt>
      <trkpt lat="35.269960" lon="-112.149140">
        <ele>2104.393</ele>
        <time>2018-12-29T02:51:56Z</time>
      </trkpt>
      <trkpt lat="35.267830" lon="-112.149690">
        <ele>2102.815</ele>
        <time>2018-12-29T02:52:16Z</time>
      </trkpt>
      <trkpt lat="35.266660" lon="-112.149990">
        <ele>2103.419</ele>
        <time>2018-12-29T02:52:36Z</time>
      </trkpt>
      <trkpt lat="35.266340" lon="-112.150060">
        <ele>2103.765</ele>
        <time>2018-12-29T02:52:56Z</time>
      </trkpt>
      <trkpt lat="35.265960" lon="-112.150150">
        <ele>2104.868</ele>
        <time>2018-12-29T02:53:16Z</time>
      </trkpt>
      <trkpt lat="35.265730" lon="-112.150180">
        <ele>2106.014</ele>
        <time>2018-12-29T02:53:36Z</time>
      </trkpt>
      <trkpt lat="35.265490" lon="-112.150210">
        <ele>2107.308</ele>
        <time>2018-12-29T02:53:56Z</time>
      </trkpt>
      <trkpt lat="35.265230" lon="-112.150230">
        <ele>2108.429</ele>
        <time>2018-12-29T02:54:16Z</time>
      </trkpt>
      <trkpt lat="35.264970" lon="-112.150250">
        <ele>2109.247</ele>
        <time>2018-12-29T02:54:36Z</time>
      </trkpt>
      <trkpt lat="35.264680" lon="-112.150250">
        <ele>2109.922</ele>
        <time>2018-12-29T02:54:56Z</time>
      </trkpt>
      <trkpt lat="35.264340" lon="-112.150250">
        <ele>2110.723</ele>
        <time>2018-12-29T02:55:16Z</time>
      </trkpt>
      <trkpt lat="35.264020" lon="-112.150230">
        <ele>2111.618</ele>
        <time>2018-12-29T02:55:36Z</time>
      </trkpt>
      <trkpt lat="35.263720" lon="-112.150220">
        <ele>2112.418</ele>
        <time>2018-12-29T02:55:56Z</time>
      </trkpt>
      <trkpt lat="35.263500" lon="-112.150210">
        <ele>2112.830</ele>
        <time>2018-12-29T02:56:16Z</time>
      </trkpt>
      <trkpt lat="35.263270" lon="-112.150200">
        <ele>2113.014</ele>
        <time>2018-12-29T02:56:36Z</time>
      </trkpt>
      <trkpt lat="35.263050" lon="-112.150200">
        <ele>2113.285</ele>
        <time>2018-12-29T02:56:56Z</time>
      </trkpt>
      <trkpt lat="35.262870" lon="-112.150210">
        <ele>2113.489</ele>
        <time>2018-12-29T02:57:16Z</time>
      </trkpt>
      <trkpt lat="35.262660" lon="-112.150250">
        <ele>2113.617</ele>
        <time>2018-12-29T02:57:36Z</time>
      </trkpt>
      <trkpt lat="35.262450" lon="-112.150290">
        <ele>2113.808</ele>
        <time>2018-12-29T02:57:56Z</time>
      </trkpt>
      <trkpt lat="35.262250" lon="-112.150350">
        <ele>2113.951</ele>
        <time>2018-12-29T02:58:16Z</time>
      </trkpt>
      <trkpt lat="35.262080" lon="-112.150400">
        <ele>2114.079</ele>
        <time>2018-12-29T02:58:36Z</time>
      </trkpt>
      <trkpt lat="35.261860" lon="-112.150500">
        <ele>2114.074</ele>
        <time>2018-12-29T02:58:56Z</time>
      </trkpt>
      <trkpt lat="35.261710" lon="-112.150570">
        <ele>2114.045</ele>
        <time>2018-12-29T02:59:16Z</time>
      </trkpt>
      <trkpt lat="35.261530" lon="-112.150660">
        <ele>2113.940</ele>
        <time>2018-12-29T02:59:36Z</time>
      </trkpt>
      <trkpt lat="35.261370" lon="-112.150740">
        <ele>2113.810</ele>
        <time>2018-12-29T02:59:56Z</time>
      </trkpt>
      <trkpt lat="35.261120" lon="-112.150880">
        <ele>2113.652</ele>
        <time>2018-12-29T03:00:16Z</time>
      </trkpt>
      <trkpt lat="35.261122" lon="-112.150875">
        <ele>2113.626</ele>
        <time>2018-12-29T03:00:36Z</time>
      </trkpt>
      <trkpt lat="35.261290" lon="-112.151310">
        <ele>2113.594</ele>
        <time>2018-12-29T03:00:56Z</time>
      </trkpt>
      <trkpt lat="35.261360" lon="-112.151510">
        <ele>2113.557</ele>
        <time>2018-12-29T03:01:16Z</time>
      </trkpt>
      <trkpt lat="35.261430" lon="-112.151690">
        <ele>2113.422</ele>
        <time>2018-12-29T03:01:36Z</time>
      </trkpt>
      <trkpt lat="35.261490" lon="-112.151890">
        <ele>2113.408</ele>
        <time>2018-12-29T03:01:56Z</time>
      </trkpt>
      <trkpt lat="35.261550" lon="-112.152090">
        <ele>2113.462</ele>
        <time>2018-12-29T03:02:16Z</time>
      </trkpt>
      <trkpt lat="35.261610" lon="-112.152310">
        <ele>2113.690</ele>
        <time>2018-12-29T03:02:36Z</time>
      </trkpt>
      <trkpt lat="35.261660" lon="-112.152540">
        <ele>2113.795</ele>
        <time>2018-12-29T03:02:56Z</time>
      </trkpt>
      <trkpt lat="35.261710" lon="-112.152780">
        <ele>2113.886</ele>
        <time>2018-12-29T03:03:16Z</time>
      </trkpt>
      <trkpt lat="35.261770" lon="-112.153100">
        <ele>2113.881</ele>
        <time>2018-12-29T03:03:36Z</time>
      </trkpt>
      <trkpt lat="35.261830" lon="-112.153370">
        <ele>2113.741</ele>
        <time>2018-12-29T03:03:56Z</time>
      </trkpt>
      <trkpt lat="35.261870" lon="-112.153570">
        <ele>2113.873</ele>
        <time>2018-12-29T03:04:16Z</time>
      </trkpt>
      <trkpt lat="35.261930" lon="-112.153810">
        <ele>2114.067</ele>
        <time>2018-12-29T03:04:36Z</time>
      </trkpt>
      <trkpt lat="35.261980" lon="-112.154040">
        <ele>2114.158</ele>
        <time>2018-12-29T03:04:56Z</time>
      </trkpt>
      <trkpt lat="35.262040" lon="-112.154250">
        <ele>2114.152</ele>
        <time>2018-12-29T03:05:16Z</time>
      </trkpt>
      <trkpt lat="35.262080" lon="-112.154410">
        <ele>2114.017</ele>
        <time>2018-12-29T03:05:36Z</time>
      </trkpt>
      <trkpt lat="35.262140" lon="-112.154630">
        <ele>2113.908</ele>
        <time>2018-12-29T03:05:56Z</time>
      </trkpt>
      <trkpt lat="35.262200" lon="-112.154850">
        <ele>2113.768</ele>
        <time>2018-12-29T03:06:16Z</time>
      </trkpt>
      <trkpt lat="35.262290" lon="-112.155170">
        <ele>2113.476</ele>
        <time>2018-12-29T03:06:36Z</time>
      </trkpt>
      <trkpt lat="35.262410" lon="-112.155550">
        <ele>2113.131</ele>
        <time>2018-12-29T03:06:56Z</time>
      </trkpt>
      <trkpt lat="35.262530" lon="-112.155910">
        <ele>2112.072</ele>
        <time>2018-12-29T03:07:16Z</time>
      </trkpt>
      <trkpt lat="35.262820" lon="-112.156750">
        <ele>2110.357</ele>
        <time>2018-12-29T03:07:36Z</time>
      </trkpt>
      <trkpt lat="35.263030" lon="-112.157360">
        <ele>2109.837</ele>
        <time>2018-12-29T03:07:56Z</time>
      </trkpt>
      <trkpt lat="35.263180" lon="-112.157820">
        <ele>2109.319</ele>
        <time>2018-12-29T03:08:16Z</time>
      </trkpt>
      <trkpt lat="35.263180" lon="-112.157840">
        <ele>2109.243</ele>
        <time>2018-12-29T03:08:36Z</time>
      </trkpt>
      <trkpt lat="35.263190" lon="-112.157870">
        <ele>2109.233</ele>
        <time>2018-12-29T03:08:56Z</time>
      </trkpt>
      <trkpt lat="35.263180" lon="-112.158030">
        <ele>2108.923</ele>
        <time>2018-12-29T03:09:16Z</time>
      </trkpt>
      <trkpt lat="35.263420" lon="-112.158800">
        <ele>2108.315</ele>
        <time>2018-12-29T03:09:36Z</time>
      </trkpt>
      <trkpt lat="35.263560" lon="-112.159380">
        <ele>2106.908</ele>
        <time>2018-12-29T03:09:56Z</time>
      </trkpt>
      <trkpt lat="35.263630" lon="-112.159670">
        <ele>2105.966</ele>
        <time>2018-12-29T03:10:16Z</time>
      </trkpt>
      <trkpt lat="35.263690" lon="-112.159920">
        <ele>2105.244</ele>
        <time>2018-12-29T03:10:36Z</time>
      </trkpt>
      <trkpt lat="35.263750" lon="-112.160160">
        <ele>2104.869</ele>
        <time>2018-12-29T03:10:56Z</time>
      </trkpt>
      <trkpt lat="35.263800" lon="-112.160400">
        <ele>2104.060</ele>
        <time>2018-12-29T03:11:16Z</time>
      </trkpt>
      <trkpt lat="35.263870" lon="-112.160790">
        <ele>2103.425</ele>
        <time>2018-12-29T03:11:36Z</time>
      </trkpt>
      <trkpt lat="35.263930" lon="-112.161100">
        <ele>2101.815</ele>
        <time>2018-12-29T03:11:56Z</time>
      </trkpt>
      <trkpt lat="35.263990" lon="-112.161490">
        <ele>2099.487</ele>
        <time>2018-12-29T03:12:16Z</time>
      </trkpt>
      <trkpt lat="35.264030" lon="-112.161790">
        <ele>2098.661</ele>
        <time>2018-12-29T03:12:36Z</time>
      </trkpt>
      <trkpt lat="35.264070" lon="-112.162080">
        <ele>2097.346</ele>
        <time>2018-12-29T03:12:56Z</time>
      </trkpt>
      <trkpt lat="35.264110" lon="-112.162380">
        <ele>2095.588</ele>
        <time>2018-12-29T03:13:16Z</time>
      </trkpt>
      <trkpt lat="35.264150" lon="-112.162710">
        <ele>2093.016</ele>
        <time>2018-12-29T03:13:36Z</time>
      </trkpt>
      <trkpt lat="35.264180" lon="-112.163120">
        <ele>2091.508</ele>
        <time>2018-12-29T03:13:56Z</time>
      </trkpt>
      <trkpt lat="35.264210" lon="-112.163540">
        <ele>2090.977</ele>
        <time>2018-12-29T03:14:16Z</time>
      </trkpt>
      <trkpt lat="35.264230" lon="-112.163910">
        <ele>2090.685</ele>
        <time>2018-12-29T03:14:36Z</time>
      </trkpt>
      <trkpt lat="35.264250" lon="-112.164320">
        <ele>2090.520</ele>
        <time>2018-12-29T03:14:56Z</time>
      </trkpt>
      <trkpt lat="35.264260" lon="-112.164720">
        <ele>2090.241</ele>
        <time>2018-12-29T03:15:16Z</time>
      </trkpt>
      <trkpt lat="35.264260" lon="-112.165140">
        <ele>2090.186</ele>
        <time>2018-12-29T03:15:36Z</time>
      </trkpt>
      <trkpt lat="35.264260" lon="-112.165580">
        <ele>2089.876</ele>
        <time>2018-12-29T03:15:56Z</time>
      </trkpt>
      <trkpt lat="35.264250" lon="-112.166260">
        <ele>2085.418</ele>
        <time>2018-12-29T03:16:16Z</time>
      </trkpt>
      <trkpt lat="35.264250" lon="-112.166630">
        <ele>2082.462</ele>
        <time>2018-12-29T03:16:36Z</time>
      </trkpt>
      <trkpt lat="35.264240" lon="-112.167110">
        <ele>2086.859</ele>
        <time>2018-12-29T03:16:56Z</time>
      </trkpt>
      <trkpt lat="35.264220" lon="-112.168780">
        <ele>2084.803</ele>
        <time>2018-12-29T03:17:16Z</time>
      </trkpt>
      <trkpt lat="35.264200" lon="-112.170250">
        <ele>2073.123</ele>
        <time>2018-12-29T03:17:36Z</time>
      </trkpt>
      <trkpt lat="35.264170" lon="-112.172790">
        <ele>2060.808</ele>
        <time>2018-12-29T03:17:56Z</time>
      </trkpt>
      <trkpt lat="35.264160" lon="-112.172950">
        <ele>2060.278</ele>
        <time>2018-12-29T03:18:16Z</time>
      </trkpt>
      <trkpt lat="35.264160" lon="-112.173100">
        <ele>2059.656</ele>
        <time>2018-12-29T03:18:36Z</time>
      </trkpt>
      <trkpt lat="35.264160" lon="-112.173180">
        <ele>2059.281</ele>
        <time>2018-12-29T03:18:56Z</time>
      </trkpt>
      <trkpt lat="35.264120" lon="-112.176120">
        <ele>2055.372</ele>
        <time>2018-12-29T03:19:16Z</time>
      </trkpt>
      <trkpt lat="35.264090" lon="-112.179050">
        <ele>2055.377</ele>
        <time>2018-12-29T03:19:36Z</time>
      </trkpt>
      <trkpt lat="35.264080" lon="-112.179250">
        <ele>2055.117</ele>
        <time>2018-12-29T03:19:56Z</time>
      </trkpt>
      <trkpt lat="35.264070" lon="-112.179580">
        <ele>2055.239</ele>
        <time>2018-12-29T03:20:16Z</time>
      </trkpt>
      <trkpt lat="35.264060" lon="-112.179840">
        <ele>2055.393</ele>
        <time>2018-12-29T03:20:36Z</time>
      </trkpt>
      <trkpt lat="35.264060" lon="-112.179900">
        <ele>2055.348</ele>
        <time>2018-12-29T03:20:56Z</time>
      </trkpt>
      <trkpt lat="35.264030" lon="-112.180310">
        <ele>2055.461</ele>
        <time>2018-12-29T03:21:16Z</time>
      </trkpt>
      <trkpt lat="35.263990" lon="-112.180730">
        <ele>2055.317</ele>
        <time>2018-12-29T03:21:36Z</time>
      </trkpt>
      <trkpt lat="35.263950" lon="-112.181100">
        <ele>2055.308</ele>
        <time>2018-12-29T03:21:56Z</time>
      </trkpt>
      <trkpt lat="35.263910" lon="-112.181420">
        <ele>2055.357</ele>
        <time>2018-12-29T03:22:16Z</time>
      </trkpt>
      <trkpt lat="35.263850" lon="-112.181840">
        <ele>2055.335</ele>
        <time>2018-12-29T03:22:36Z</time>
      </trkpt>
      <trkpt lat="35.263770" lon="-112.182290">
        <ele>2055.330</ele>
        <time>2018-12-29T03:22:56Z</time>
      </trkpt>
      <trkpt lat="35.263700" lon="-112.182660">
        <ele>2055.331</ele>
        <time>2018-12-29T03:23:16Z</time>
      </trkpt>
      <trkpt lat="35.263590" lon="-112.183110">
        <ele>2055.376</ele>
        <time>2018-12-29T03:23:36Z</time>
      </trkpt>
      <trkpt lat="35.263490" lon="-112.183550">
        <ele>2055.386</ele>
        <time>2018-12-29T03:23:56Z</time>
      </trkpt>
      <trkpt lat="35.263360" lon="-112.184020">
        <ele>2055.398</ele>
        <time>2018-12-29T03:24:16Z</time>
      </trkpt>
      <trkpt lat="35.263240" lon="-112.184420">
        <ele>2055.362</ele>
        <time>2018-12-29T03:24:36Z</time>
      </trkpt>
      <trkpt lat="35.263130" lon="-112.184730">
        <ele>2055.312</ele>
        <time>2018-12-29T03:24:56Z</time>
      </trkpt>
      <trkpt lat="35.263010" lon="-112.185110">
        <ele>2055.332</ele>
        <time>2018-12-29T03:25:16Z</time>
      </trkpt>
      <trkpt lat="35.262900" lon="-112.185390">
        <ele>2055.305</ele>
        <time>2018-12-29T03:25:36Z</time>
      </trkpt>
      <trkpt lat="35.262710" lon="-112.185870">
        <ele>2055.308</ele>
        <time>2018-12-29T03:25:56Z</time>
      </trkpt>
      <trkpt lat="35.262590" lon="-112.186150">
        <ele>2055.234</ele>
        <time>2018-12-29T03:26:16Z</time>
      </trkpt>
      <trkpt lat="35.262560" lon="-112.186230">
        <ele>2055.162</ele>
        <time>2018-12-29T03:26:36Z</time>
      </trkpt>
      <trkpt lat="35.262490" lon="-112.186370">
        <ele>2055.287</ele>
        <time>2018-12-29T03:26:56Z</time>
      </trkpt>
      <trkpt lat="35.262430" lon="-112.186500">
        <ele>2055.318</ele>
        <time>2018-12-29T03:27:16Z</time>
      </trkpt>
      <trkpt lat="35.262390" lon="-112.186600">
        <ele>2055.313</ele>
        <time>2018-12-29T03:27:36Z</time>
      </trkpt>
      <trkpt lat="35.262210" lon="-112.186970">
        <ele>2055.333</ele>
        <time>2018-12-29T03:27:56Z</time>
      </trkpt>
      <trkpt lat="35.262030" lon="-112.187340">
        <ele>2055.445</ele>
        <time>2018-12-29T03:28:16Z</time>
      </trkpt>
      <trkpt lat="35.259410" lon="-112.192650">
        <ele>2055.319</ele>
        <time>2018-12-29T03:28:36Z</time>
      </trkpt>
      <trkpt lat="35.259300" lon="-112.192870">
        <ele>2055.419</ele>
        <time>2018-12-29T03:28:56Z</time>
      </trkpt>
      <trkpt lat="35.259220" lon="-112.193030">
        <ele>2055.309</ele>
        <time>2018-12-29T03:29:16Z</time>
      </trkpt>
      <trkpt lat="35.258290" lon="-112.194910">
        <ele>2055.319</ele>
        <time>2018-12-29T03:29:36Z</time>
      </trkpt>
      <trkpt lat="35.256220" lon="-112.199090">
        <ele>2055.408</ele>
        <time>2018-12-29T03:29:56Z</time>
      </trkpt>
      <trkpt lat="35.255980" lon="-112.199580">
        <ele>2055.454</ele>
        <time>2018-12-29T03:30:16Z</time>
      </trkpt>
      <trkpt lat="35.255470" lon="-112.200610">
        <ele>2055.472</ele>
        <time>2018-12-29T03:30:36Z</time>
      </trkpt>
      <trkpt lat="35.254670" lon="-112.202210">
        <ele>2055.547</ele>
        <time>2018-12-29T03:30:56Z</time>
      </trkpt>
      <trkpt lat="35.254490" lon="-112.202580">
        <ele>2055.488</ele>
        <time>2018-12-29T03:31:16Z</time>
      </trkpt>
      <trkpt lat="35.254300" lon="-112.202940">
        <ele>2055.513</ele>
        <time>2018-12-29T03:31:36Z</time>
      </trkpt>
      <trkpt lat="35.254120" lon="-112.203270">
        <ele>2055.573</ele>
        <time>2018-12-29T03:31:56Z</time>
      </trkpt>
      <trkpt lat="35.253930" lon="-112.203630">
        <ele>2055.595</ele>
        <time>2018-12-29T03:32:16Z</time>
      </trkpt>
      <trkpt lat="35.253740" lon="-112.203950">
        <ele>2055.589</ele>
        <time>2018-12-29T03:32:36Z</time>
      </trkpt>
      <trkpt lat="35.253550" lon="-112.204280">
        <ele>2055.992</ele>
        <time>2018-12-29T03:32:56Z</time>
      </trkpt>
      <trkpt lat="35.253400" lon="-112.204530">
        <ele>2056.273</ele>
        <time>2018-12-29T03:33:16Z</time>
      </trkpt>
      <trkpt lat="35.253200" lon="-112.204840">
        <ele>2056.720</ele>
        <time>2018-12-29T03:33:36Z</time>
      </trkpt>
      <trkpt lat="35.253010" lon="-112.205130">
        <ele>2057.408</ele>
        <time>2018-12-29T03:33:56Z</time>
      </trkpt>
      <trkpt lat="35.252810" lon="-112.205430">
        <ele>2057.952</ele>
        <time>2018-12-29T03:34:16Z</time>
      </trkpt>
      <trkpt lat="35.252600" lon="-112.205750">
        <ele>2058.690</ele>
        <time>2018-12-29T03:34:36Z</time>
      </trkpt>
      <trkpt lat="35.252390" lon="-112.206030">
        <ele>2059.235</ele>
        <time>2018-12-29T03:34:56Z</time>
      </trkpt>
      <trkpt lat="35.252230" lon="-112.206250">
        <ele>2059.556</ele>
        <time>2018-12-29T03:35:16Z</time>
      </trkpt>
      <trkpt lat="35.252070" lon="-112.206480">
        <ele>2059.811</ele>
        <time>2018-12-29T03:35:36Z</time>
      </trkpt>
      <trkpt lat="35.251940" lon="-112.206630">
        <ele>2060.051</ele>
        <time>2018-12-29T03:35:56Z</time>
      </trkpt>
      <trkpt lat="35.251790" lon="-112.206830">
        <ele>2060.283</ele>
        <time>2018-12-29T03:36:16Z</time>
      </trkpt>
      <trkpt lat="35.251630" lon="-112.207040">
        <ele>2060.497</ele>
        <time>2018-12-29T03:36:36Z</time>
      </trkpt>
      <trkpt lat="35.251470" lon="-112.207250">
        <ele>2060.711</ele>
        <time>2018-12-29T03:36:56Z</time>
      </trkpt>
      <trkpt lat="35.251190" lon="-112.207620">
        <ele>2061.521</ele>
        <time>2018-12-29T03:37:16Z</time>
      </trkpt>
      <trkpt lat="35.251030" lon="-112.207810">
        <ele>2062.803</ele>
        <time>2018-12-29T03:37:36Z</time>
      </trkpt>
      <trkpt lat="35.250890" lon="-112.207990">
        <ele>2064.108</ele>
        <time>2018-12-29T03:37:56Z</time>
      </trkpt>
      <trkpt lat="35.250670" lon="-112.208270">
        <ele>2066.014</ele>
        <time>2018-12-29T03:38:16Z</time>
      </trkpt>
      <trkpt lat="35.250300" lon="-112.208740">
        <ele>2069.782</ele>
        <time>2018-12-29T03:38:36Z</time>
      </trkpt>
      <trkpt lat="35.249560" lon="-112.209700">
        <ele>2077.897</ele>
        <time>2018-12-29T03:38:56Z</time>
      </trkpt>
      <trkpt lat="35.249300" lon="-112.210020">
        <ele>2079.758</ele>
        <time>2018-12-29T03:39:16Z</time>
      </trkpt>
      <trkpt lat="35.249090" lon="-112.210290">
        <ele>2085.653</ele>
        <time>2018-12-29T03:39:36Z</time>
      </trkpt>
      <trkpt lat="35.248800" lon="-112.210620">
        <ele>2090.533</ele>
        <time>2018-12-29T03:39:56Z</time>
      </trkpt>
      <trkpt lat="35.248700" lon="-112.210750">
        <ele>2091.995</ele>
        <time>2018-12-29T03:40:16Z</time>
      </trkpt>
      <trkpt lat="35.248560" lon="-112.210930">
        <ele>2092.579</ele>
        <time>2018-12-29T03:40:36Z</time>
      </trkpt>
      <trkpt lat="35.248320" lon="-112.211240">
        <ele>2093.983</ele>
        <time>2018-12-29T03:40:56Z</time>
      </trkpt>
      <trkpt lat="35.248130" lon="-112.211480">
        <ele>2094.425</ele>
        <time>2018-12-29T03:41:16Z</time>
      </trkpt>
      <trkpt lat="35.247940" lon="-112.211740">
        <ele>2093.317</ele>
        <time>2018-12-29T03:41:36Z</time>
      </trkpt>
      <trkpt lat="35.247660" lon="-112.212090">
        <ele>2093.708</ele>
        <time>2018-12-29T03:41:56Z</time>
      </trkpt>
      <trkpt lat="35.247480" lon="-112.212330">
        <ele>2093.931</ele>
        <time>2018-12-29T03:42:16Z</time>
      </trkpt>
      <trkpt lat="35.247300" lon="-112.212550">
        <ele>2094.349</ele>
        <time>2018-12-29T03:42:36Z</time>
      </trkpt>
      <trkpt lat="35.247090" lon="-112.212810">
        <ele>2094.884</ele>
        <time>2018-12-29T03:42:56Z</time>
      </trkpt>
      <trkpt lat="35.246920" lon="-112.213020">
        <ele>2095.335</ele>
        <time>2018-12-29T03:43:16Z</time>
      </trkpt>
      <trkpt lat="35.246700" lon="-112.213280">
        <ele>2096.390</ele>
        <time>2018-12-29T03:43:36Z</time>
      </trkpt>
      <trkpt lat="35.246470" lon="-112.213550">
        <ele>2097.060</ele>
        <time>2018-12-29T03:43:56Z</time>
      </trkpt>
      <trkpt lat="35.246280" lon="-112.213780">
        <ele>2097.322</ele>
        <time>2018-12-29T03:44:16Z</time>
      </trkpt>
      <trkpt lat="35.246030" lon="-112.214040">
        <ele>2097.546</ele>
        <time>2018-12-29T03:44:36Z</time>
      </trkpt>
      <trkpt lat="35.245750" lon="-112.214340">
        <ele>2097.753</ele>
        <time>2018-12-29T03:44:56Z</time>
      </trkpt>
      <trkpt lat="35.245470" lon="-112.214620">
        <ele>2097.804</ele>
        <time>2018-12-29T03:45:16Z</time>
      </trkpt>
      <trkpt lat="35.245220" lon="-112.214860">
        <ele>2097.914</ele>
        <time>2018-12-29T03:45:36Z</time>
      </trkpt>
      <trkpt lat="35.244990" lon="-112.215060">
        <ele>2098.008</ele>
        <time>2018-12-29T03:45:56Z</time>
      </trkpt>
      <trkpt lat="35.244820" lon="-112.215220">
        <ele>2097.978</ele>
        <time>2018-12-29T03:46:16Z</time>
      </trkpt>
      <trkpt lat="35.244580" lon="-112.215430">
        <ele>2097.966</ele>
        <time>2018-12-29T03:46:36Z</time>
      </trkpt>
      <trkpt lat="35.244330" lon="-112.215630">
        <ele>2097.961</ele>
        <time>2018-12-29T03:46:56Z</time>
      </trkpt>
      <trkpt lat="35.244050" lon="-112.215850">
        <ele>2097.962</ele>
        <time>2018-12-29T03:47:16Z</time>
      </trkpt>
      <trkpt lat="35.243750" lon="-112.216080">
        <ele>2097.927</ele>
        <time>2018-12-29T03:47:36Z</time>
      </trkpt>
      <trkpt lat="35.243390" lon="-112.216350">
        <ele>2097.787</ele>
        <time>2018-12-29T03:47:56Z</time>
      </trkpt>
      <trkpt lat="35.242980" lon="-112.216640">
        <ele>2097.389</ele>
        <time>2018-12-29T03:48:16Z</time>
      </trkpt>
      <trkpt lat="35.242550" lon="-112.216950">
        <ele>2097.163</ele>
        <time>2018-12-29T03:48:36Z</time>
      </trkpt>
      <trkpt lat="35.242200" lon="-112.217200">
        <ele>2097.068</ele>
        <time>2018-12-29T03:48:56Z</time>
      </trkpt>
      <trkpt lat="35.241940" lon="-112.217390">
        <ele>2096.542</ele>
        <time>2018-12-29T03:49:16Z</time>
      </trkpt>
      <trkpt lat="35.241680" lon="-112.217580">
        <ele>2095.926</ele>
        <time>2018-12-29T03:49:36Z</time>
      </trkpt>
      <trkpt lat="35.241330" lon="-112.217840">
        <ele>2095.008</ele>
        <time>2018-12-29T03:49:56Z</time>
      </trkpt>
      <trkpt lat="35.241010" lon="-112.218080">
        <ele>2094.129</ele>
        <time>2018-12-29T03:50:16Z</time>
      </trkpt>
      <trkpt lat="35.240820" lon="-112.218240">
        <ele>2093.617</ele>
        <time>2018-12-29T03:50:36Z</time>
      </trkpt>
      <trkpt lat="35.240600" lon="-112.218430">
        <ele>2093.332</ele>
        <time>2018-12-29T03:50:56Z</time>
      </trkpt>
      <trkpt lat="35.240410" lon="-112.218600">
        <ele>2092.993</ele>
        <time>2018-12-29T03:51:16Z</time>
      </trkpt>
      <trkpt lat="35.240220" lon="-112.218790">
        <ele>2092.598</ele>
        <time>2018-12-29T03:51:36Z</time>
      </trkpt>
      <trkpt lat="35.240050" lon="-112.218950">
        <ele>2092.368</ele>
        <time>2018-12-29T03:51:56Z</time>
      </trkpt>
      <trkpt lat="35.239910" lon="-112.219090">
        <ele>2092.320</ele>
        <time>2018-12-29T03:52:16Z</time>
      </trkpt>
      <trkpt lat="35.239760" lon="-112.219260">
        <ele>2092.244</ele>
        <time>2018-12-29T03:52:36Z</time>
      </trkpt>
      <trkpt lat="35.239530" lon="-112.219520">
        <ele>2092.249</ele>
        <time>2018-12-29T03:52:56Z</time>
      </trkpt>
      <trkpt lat="35.239330" lon="-112.219760">
        <ele>2092.202</ele>
        <time>2018-12-29T03:53:16Z</time>
      </trkpt>
      <trkpt lat="35.239180" lon="-112.219950">
        <ele>2092.322</ele>
        <time>2018-12-29T03:53:36Z</time>
      </trkpt>
      <trkpt lat="35.238950" lon="-112.220250">
        <ele>2092.908</ele>
        <time>2018-12-29T03:53:56Z</time>
      </trkpt>
      <trkpt lat="35.238880" lon="-112.220350">
        <ele>2093.277</ele>
        <time>2018-12-29T03:54:16Z</time>
      </trkpt>
      <trkpt lat="35.238810" lon="-112.220440">
        <ele>2093.635</ele>
        <time>2018-12-29T03:54:36Z</time>
      </trkpt>
      <trkpt lat="35.238640" lon="-112.220670">
        <ele>2095.060</ele>
        <time>2018-12-29T03:54:56Z</time>
      </trkpt>
      <trkpt lat="35.238530" lon="-112.220840">
        <ele>2096.081</ele>
        <time>2018-12-29T03:55:16Z</time>
      </trkpt>
      <trkpt lat="35.238400" lon="-112.221040">
        <ele>2096.926</ele>
        <time>2018-12-29T03:55:36Z</time>
      </trkpt>
      <trkpt lat="35.238290" lon="-112.221220">
        <ele>2097.666</ele>
        <time>2018-12-29T03:55:56Z</time>
      </trkpt>
      <trkpt lat="35.238150" lon="-112.221460">
        <ele>2098.048</ele>
        <time>2018-12-29T03:56:16Z</time>
      </trkpt>
      <trkpt lat="35.238010" lon="-112.221710">
        <ele>2098.242</ele>
        <time>2018-12-29T03:56:36Z</time>
      </trkpt>
      <trkpt lat="35.237890" lon="-112.221950">
        <ele>2098.413</ele>
        <time>2018-12-29T03:56:56Z</time>
      </trkpt>
      <trkpt lat="35.237780" lon="-112.222150">
        <ele>2098.743</ele>
        <time>2018-12-29T03:57:16Z</time>
      </trkpt>
      <trkpt lat="35.237700" lon="-112.222320">
        <ele>2099.107</ele>
        <time>2018-12-29T03:57:36Z</time>
      </trkpt>
      <trkpt lat="35.237590" lon="-112.222550">
        <ele>2099.408</ele>
        <time>2018-12-29T03:57:56Z</time>
      </trkpt>
      <trkpt lat="35.237500" lon="-112.222760">
        <ele>2099.654</ele>
        <time>2018-12-29T03:58:16Z</time>
      </trkpt>
      <trkpt lat="35.237310" lon="-112.223210">
        <ele>2100.412</ele>
        <time>2018-12-29T03:58:36Z</time>
      </trkpt>
      <trkpt lat="35.237170" lon="-112.223530">
        <ele>2101.367</ele>
        <time>2018-12-29T03:58:56Z</time>
      </trkpt>
      <trkpt lat="35.237000" lon="-112.223930">
        <ele>2102.838</ele>
        <time>2018-12-29T03:59:16Z</time>
      </trkpt>
      <trkpt lat="35.236820" lon="-112.224370">
        <ele>2104.393</ele>
        <time>2018-12-29T03:59:36Z</time>
      </trkpt>
      <trkpt lat="35.236670" lon="-112.224710">
        <ele>2104.443</ele>
        <time>2018-12-29T03:59:56Z</time>
      </trkpt>
      <trkpt lat="35.236530" lon="-112.225060">
        <ele>2105.025</ele>
        <time>2018-12-29T04:00:16Z</time>
      </trkpt>
      <trkpt lat="35.236370" lon="-112.225430">
        <ele>2105.419</ele>
        <time>2018-12-29T04:00:36Z</time>
      </trkpt>
      <trkpt lat="35.236170" lon="-112.225910">
        <ele>2105.879</ele>
        <time>2018-12-29T04:00:56Z</time>
      </trkpt>
      <trkpt lat="35.235780" lon="-112.226850">
        <ele>2108.105</ele>
        <time>2018-12-29T04:01:16Z</time>
      </trkpt>
      <trkpt lat="35.235640" lon="-112.227170">
        <ele>2109.325</ele>
        <time>2018-12-29T04:01:36Z</time>
      </trkpt>
      <trkpt lat="35.235510" lon="-112.227470">
        <ele>2110.308</ele>
        <time>2018-12-29T04:01:56Z</time>
      </trkpt>
      <trkpt lat="35.235340" lon="-112.227850">
        <ele>2111.360</ele>
        <time>2018-12-29T04:02:16Z</time>
      </trkpt>
      <trkpt lat="35.235220" lon="-112.228100">
        <ele>2111.778</ele>
        <time>2018-12-29T04:02:36Z</time>
      </trkpt>
      <trkpt lat="35.235100" lon="-112.228340">
        <ele>2111.953</ele>
        <time>2018-12-29T04:02:56Z</time>
      </trkpt>
      <trkpt lat="35.234930" lon="-112.228680">
        <ele>2112.234</ele>
        <time>2018-12-29T04:03:16Z</time>
      </trkpt>
      <trkpt lat="35.234790" lon="-112.228940">
        <ele>2112.789</ele>
        <time>2018-12-29T04:03:36Z</time>
      </trkpt>
      <trkpt lat="35.234480" lon="-112.229480">
        <ele>2114.319</ele>
        <time>2018-12-29T04:03:56Z</time>
      </trkpt>
      <trkpt lat="35.234300" lon="-112.229780">
        <ele>2115.171</ele>
        <time>2018-12-29T04:04:16Z</time>
      </trkpt>
      <trkpt lat="35.234170" lon="-112.229990">
        <ele>2115.375</ele>
        <time>2018-12-29T04:04:36Z</time>
      </trkpt>
      <trkpt lat="35.234040" lon="-112.230200">
        <ele>2115.636</ele>
        <time>2018-12-29T04:04:56Z</time>
      </trkpt>
      <trkpt lat="35.233840" lon="-112.230500">
        <ele>2116.517</ele>
        <time>2018-12-29T04:05:16Z</time>
      </trkpt>
      <trkpt lat="35.233570" lon="-112.230900">
        <ele>2117.018</ele>
        <time>2018-12-29T04:05:36Z</time>
      </trkpt>
      <trkpt lat="35.233360" lon="-112.231200">
        <ele>2117.108</ele>
        <time>2018-12-29T04:05:56Z</time>
      </trkpt>
      <trkpt lat="35.233210" lon="-112.231390">
        <ele>2117.276</ele>
        <time>2018-12-29T04:06:16Z</time>
      </trkpt>
      <trkpt lat="35.233040" lon="-112.231610">
        <ele>2117.414</ele>
        <time>2018-12-29T04:06:36Z</time>
      </trkpt>
      <trkpt lat="35.232840" lon="-112.231850">
        <ele>2117.989</ele>
        <time>2018-12-29T04:06:56Z</time>
      </trkpt>
      <trkpt lat="35.232700" lon="-112.232030">
        <ele>2118.950</ele>
        <time>2018-12-29T04:07:16Z</time>
      </trkpt>
      <trkpt lat="35.232520" lon="-112.232250">
        <ele>2120.075</ele>
        <time>2018-12-29T04:07:36Z</time>
      </trkpt>
      <trkpt lat="35.232350" lon="-112.232450">
        <ele>2120.875</ele>
        <time>2018-12-29T04:07:56Z</time>
      </trkpt>
      <trkpt lat="35.232160" lon="-112.232650">
        <ele>2121.267</ele>
        <time>2018-12-29T04:08:16Z</time>
      </trkpt>
      <trkpt lat="35.231990" lon="-112.232830">
        <ele>2121.311</ele>
        <time>2018-12-29T04:08:36Z</time>
      </trkpt>
      <trkpt lat="35.231800" lon="-112.233040">
        <ele>2121.593</ele>
        <time>2018-12-29T04:08:56Z</time>
      </trkpt>
      <trkpt lat="35.231550" lon="-112.233290">
        <ele>2122.365</ele>
        <time>2018-12-29T04:09:16Z</time>
      </trkpt>
      <trkpt lat="35.231310" lon="-112.233510">
        <ele>2123.021</ele>
        <time>2018-12-29T04:09:36Z</time>
      </trkpt>
      <trkpt lat="35.231040" lon="-112.233750">
        <ele>2123.108</ele>
        <time>2018-12-29T04:09:56Z</time>
      </trkpt>
      <trkpt lat="35.230900" lon="-112.233890">
        <ele>2123.332</ele>
        <time>2018-12-29T04:10:16Z</time>
      </trkpt>
      <trkpt lat="35.230700" lon="-112.234050">
        <ele>2123.720</ele>
        <time>2018-12-29T04:10:36Z</time>
      </trkpt>
      <trkpt lat="35.230460" lon="-112.234250">
        <ele>2124.285</ele>
        <time>2018-12-29T04:10:56Z</time>
      </trkpt>
      <trkpt lat="35.230180" lon="-112.234480">
        <ele>2125.046</ele>
        <time>2018-12-29T04:11:16Z</time>
      </trkpt>
      <trkpt lat="35.229790" lon="-112.234780">
        <ele>2126.131</ele>
        <time>2018-12-29T04:11:36Z</time>
      </trkpt>
      <trkpt lat="35.229500" lon="-112.234990">
        <ele>2126.771</ele>
        <time>2018-12-29T04:11:56Z</time>
      </trkpt>
      <trkpt lat="35.229130" lon="-112.235240">
        <ele>2127.213</ele>
        <time>2018-12-29T04:12:16Z</time>
      </trkpt>
      <trkpt lat="35.228660" lon="-112.235560">
        <ele>2126.867</ele>
        <time>2018-12-29T04:12:36Z</time>
      </trkpt>
      <trkpt lat="35.227960" lon="-112.236030">
        <ele>2125.747</ele>
        <time>2018-12-29T04:12:56Z</time>
      </trkpt>
      <trkpt lat="35.227780" lon="-112.236150">
        <ele>2125.529</ele>
        <time>2018-12-29T04:13:16Z</time>
      </trkpt>
      <trkpt lat="35.227570" lon="-112.236310">
        <ele>2125.521</ele>
        <time>2018-12-29T04:13:36Z</time>
      </trkpt>
      <trkpt lat="35.227410" lon="-112.236450">
        <ele>2125.508</ele>
        <time>2018-12-29T04:13:56Z</time>
      </trkpt>
      <trkpt lat="35.227240" lon="-112.236590">
        <ele>2126.127</ele>
        <time>2018-12-29T04:14:16Z</time>
      </trkpt>
      <trkpt lat="35.227030" lon="-112.236790">
        <ele>2127.065</ele>
        <time>2018-12-29T04:14:36Z</time>
      </trkpt>
      <trkpt lat="35.226820" lon="-112.237000">
        <ele>2127.570</ele>
        <time>2018-12-29T04:14:56Z</time>
      </trkpt>
      <trkpt lat="35.226660" lon="-112.237160">
        <ele>2127.331</ele>
        <time>2018-12-29T04:15:16Z</time>
      </trkpt>
      <trkpt lat="35.226430" lon="-112.237420">
        <ele>2126.656</ele>
        <time>2018-12-29T04:15:36Z</time>
      </trkpt>
      <trkpt lat="35.226130" lon="-112.237790">
        <ele>2126.476</ele>
        <time>2018-12-29T04:15:56Z</time>
      </trkpt>
      <trkpt lat="35.225970" lon="-112.238000">
        <ele>2126.348</ele>
        <time>2018-12-29T04:16:16Z</time>
      </trkpt>
      <trkpt lat="35.225810" lon="-112.238230">
        <ele>2126.072</ele>
        <time>2018-12-29T04:16:36Z</time>
      </trkpt>
      <trkpt lat="35.225680" lon="-112.238430">
        <ele>2126.019</ele>
        <time>2018-12-29T04:16:56Z</time>
      </trkpt>
      <trkpt lat="35.225500" lon="-112.238720">
        <ele>2126.609</ele>
        <time>2018-12-29T04:17:16Z</time>
      </trkpt>
      <trkpt lat="35.225260" lon="-112.239160">
        <ele>2129.219</ele>
        <time>2018-12-29T04:17:36Z</time>
      </trkpt>
      <trkpt lat="35.225080" lon="-112.239510">
        <ele>2128.608</ele>
        <time>2018-12-29T04:17:56Z</time>
      </trkpt>
      <trkpt lat="35.224870" lon="-112.239970">
        <ele>2128.174</ele>
        <time>2018-12-29T04:18:16Z</time>
      </trkpt>
      <trkpt lat="35.224770" lon="-112.240220">
        <ele>2126.682</ele>
        <time>2018-12-29T04:18:36Z</time>
      </trkpt>
      <trkpt lat="35.224640" lon="-112.240560">
        <ele>2126.497</ele>
        <time>2018-12-29T04:18:56Z</time>
      </trkpt>
      <trkpt lat="35.224540" lon="-112.240860">
        <ele>2122.638</ele>
        <time>2018-12-29T04:19:16Z</time>
      </trkpt>
      <trkpt lat="35.224440" lon="-112.241160">
        <ele>2120.713</ele>
        <time>2018-12-29T04:19:36Z</time>
      </trkpt>
      <trkpt lat="35.224360" lon="-112.241430">
        <ele>2119.473</ele>
        <time>2018-12-29T04:19:56Z</time>
      </trkpt>
      <trkpt lat="35.224280" lon="-112.241790">
        <ele>2117.995</ele>
        <time>2018-12-29T04:20:16Z</time>
      </trkpt>
      <trkpt lat="35.224170" lon="-112.242300">
        <ele>2114.129</ele>
        <time>2018-12-29T04:20:36Z</time>
      </trkpt>
      <trkpt lat="35.224100" lon="-112.242710">
        <ele>2112.953</ele>
        <time>2018-12-29T04:20:56Z</time>
      </trkpt>
      <trkpt lat="35.224030" lon="-112.243360">
        <ele>2112.504</ele>
        <time>2018-12-29T04:21:16Z</time>
      </trkpt>
      <trkpt lat="35.223990" lon="-112.243960">
        <ele>2111.914</ele>
        <time>2018-12-29T04:21:36Z</time>
      </trkpt>
      <trkpt lat="35.223990" lon="-112.244200">
        <ele>2111.808</ele>
        <time>2018-12-29T04:21:56Z</time>
      </trkpt>
      <trkpt lat="35.223990" lon="-112.244590">
        <ele>2110.598</ele>
        <time>2018-12-29T04:22:16Z</time>
      </trkpt>
      <trkpt lat="35.224000" lon="-112.244970">
        <ele>2108.596</ele>
        <time>2018-12-29T04:22:36Z</time>
      </trkpt>
      <trkpt lat="35.224010" lon="-112.245220">
        <ele>2107.791</ele>
        <time>2018-12-29T04:22:56Z</time>
      </trkpt>
      <trkpt lat="35.224040" lon="-112.245500">
        <ele>2106.482</ele>
        <time>2018-12-29T04:23:16Z</time>
      </trkpt>
      <trkpt lat="35.224080" lon="-112.245890">
        <ele>2103.917</ele>
        <time>2018-12-29T04:23:36Z</time>
      </trkpt>
      <trkpt lat="35.224140" lon="-112.246270">
        <ele>2101.917</ele>
        <time>2018-12-29T04:23:56Z</time>
      </trkpt>
      <trkpt lat="35.224240" lon="-112.246920">
        <ele>2099.089</ele>
        <time>2018-12-29T04:24:16Z</time>
      </trkpt>
      <trkpt lat="35.224330" lon="-112.247460">
        <ele>2098.843</ele>
        <time>2018-12-29T04:24:36Z</time>
      </trkpt>
      <trkpt lat="35.224420" lon="-112.247970">
        <ele>2095.296</ele>
        <time>2018-12-29T04:24:56Z</time>
      </trkpt>
      <trkpt lat="35.224490" lon="-112.248420">
        <ele>2092.031</ele>
        <time>2018-12-29T04:25:16Z</time>
      </trkpt>
      <trkpt lat="35.224530" lon="-112.248740">
        <ele>2092.624</ele>
        <time>2018-12-29T04:25:36Z</time>
      </trkpt>
      <trkpt lat="35.224570" lon="-112.249150">
        <ele>2093.208</ele>
        <time>2018-12-29T04:25:56Z</time>
      </trkpt>
      <trkpt lat="35.224600" lon="-112.249680">
        <ele>2094.472</ele>
        <time>2018-12-29T04:26:16Z</time>
      </trkpt>
      <trkpt lat="35.224600" lon="-112.249910">
        <ele>2094.710</ele>
        <time>2018-12-29T04:26:36Z</time>
      </trkpt>
      <trkpt lat="35.224600" lon="-112.250200">
        <ele>2094.865</ele>
        <time>2018-12-29T04:26:56Z</time>
      </trkpt>
      <trkpt lat="35.224590" lon="-112.250420">
        <ele>2094.666</ele>
        <time>2018-12-29T04:27:16Z</time>
      </trkpt>
      <trkpt lat="35.224580" lon="-112.250720">
        <ele>2094.351</ele>
        <time>2018-12-29T04:27:36Z</time>
      </trkpt>
      <trkpt lat="35.224550" lon="-112.251110">
        <ele>2094.741</ele>
        <time>2018-12-29T04:27:56Z</time>
      </trkpt>
      <trkpt lat="35.224510" lon="-112.251420">
        <ele>2094.953</ele>
        <time>2018-12-29T04:28:16Z</time>
      </trkpt>
      <trkpt lat="35.224470" lon="-112.251770">
        <ele>2094.867</ele>
        <time>2018-12-29T04:28:36Z</time>
      </trkpt>
      <trkpt lat="35.224410" lon="-112.252160">
        <ele>2094.776</ele>
        <time>2018-12-29T04:28:56Z</time>
      </trkpt>
      <trkpt lat="35.224330" lon="-112.252530">
        <ele>2094.590</ele>
        <time>2018-12-29T04:29:16Z</time>
      </trkpt>
      <trkpt lat="35.224240" lon="-112.252910">
        <ele>2094.119</ele>
        <time>2018-12-29T04:29:36Z</time>
      </trkpt>
      <trkpt lat="35.224160" lon="-112.253190">
        <ele>2093.308</ele>
        <time>2018-12-29T04:29:56Z</time>
      </trkpt>
      <trkpt lat="35.224060" lon="-112.253550">
        <ele>2092.470</ele>
        <time>2018-12-29T04:30:16Z</time>
      </trkpt>
      <trkpt lat="35.223880" lon="-112.254040">
        <ele>2090.118</ele>
        <time>2018-12-29T04:30:36Z</time>
      </trkpt>
      <trkpt lat="35.223660" lon="-112.254630">
        <ele>2088.083</ele>
        <time>2018-12-29T04:30:56Z</time>
      </trkpt>
      <trkpt lat="35.223520" lon="-112.255010">
        <ele>2086.714</ele>
        <time>2018-12-29T04:31:16Z</time>
      </trkpt>
      <trkpt lat="35.223390" lon="-112.255370">
        <ele>2086.089</ele>
        <time>2018-12-29T04:31:36Z</time>
      </trkpt>
      <trkpt lat="35.223310" lon="-112.255620">
        <ele>2085.049</ele>
        <time>2018-12-29T04:31:56Z</time>
      </trkpt>
      <trkpt lat="35.223230" lon="-112.255870">
        <ele>2083.541</ele>
        <time>2018-12-29T04:32:16Z</time>
      </trkpt>
      <trkpt lat="35.223150" lon="-112.256170">
        <ele>2082.075</ele>
        <time>2018-12-29T04:32:36Z</time>
      </trkpt>
      <trkpt lat="35.223040" lon="-112.256580">
        <ele>2080.863</ele>
        <time>2018-12-29T04:32:56Z</time>
      </trkpt>
      <trkpt lat="35.222970" lon="-112.256920">
        <ele>2079.744</ele>
        <time>2018-12-29T04:33:16Z</time>
      </trkpt>
      <trkpt lat="35.222910" lon="-112.257240">
        <ele>2077.918</ele>
        <time>2018-12-29T04:33:36Z</time>
      </trkpt>
      <trkpt lat="35.222860" lon="-112.257530">
        <ele>2076.808</ele>
        <time>2018-12-29T04:33:56Z</time>
      </trkpt>
      <trkpt lat="35.222810" lon="-112.257900">
        <ele>2074.099</ele>
        <time>2018-12-29T04:34:16Z</time>
      </trkpt>
      <trkpt lat="35.222750" lon="-112.258420">
        <ele>2071.957</ele>
        <time>2018-12-29T04:34:36Z</time>
      </trkpt>
      <trkpt lat="35.222730" lon="-112.258710">
        <ele>2070.372</ele>
        <time>2018-12-29T04:34:56Z</time>
      </trkpt>
      <trkpt lat="35.222680" lon="-112.259350">
        <ele>2067.833</ele>
        <time>2018-12-29T04:35:16Z</time>
      </trkpt>
      <trkpt lat="35.222640" lon="-112.260020">
        <ele>2063.318</ele>
        <time>2018-12-29T04:35:36Z</time>
      </trkpt>
      <trkpt lat="35.222600" lon="-112.260680">
        <ele>2061.778</ele>
        <time>2018-12-29T04:35:56Z</time>
      </trkpt>
      <trkpt lat="35.222560" lon="-112.261330">
        <ele>2059.750</ele>
        <time>2018-12-29T04:36:16Z</time>
      </trkpt>
      <trkpt lat="35.222520" lon="-112.262010">
        <ele>2056.544</ele>
        <time>2018-12-29T04:36:36Z</time>
      </trkpt>
      <trkpt lat="35.222480" lon="-112.262530">
        <ele>2055.491</ele>
        <time>2018-12-29T04:36:56Z</time>
      </trkpt>
      <trkpt lat="35.222450" lon="-112.263080">
        <ele>2054.581</ele>
        <time>2018-12-29T04:37:16Z</time>
      </trkpt>
      <trkpt lat="35.222410" lon="-112.263750">
        <ele>2049.919</ele>
        <time>2018-12-29T04:37:36Z</time>
      </trkpt>
      <trkpt lat="35.222370" lon="-112.264300">
        <ele>2048.908</ele>
        <time>2018-12-29T04:37:56Z</time>
      </trkpt>
      <trkpt lat="35.222340" lon="-112.264820">
        <ele>2048.212</ele>
        <time>2018-12-29T04:38:16Z</time>
      </trkpt>
      <trkpt lat="35.222300" lon="-112.265510">
        <ele>2045.950</ele>
        <time>2018-12-29T04:38:36Z</time>
      </trkpt>
      <trkpt lat="35.222270" lon="-112.266180">
        <ele>2043.895</ele>
        <time>2018-12-29T04:38:56Z</time>
      </trkpt>
      <trkpt lat="35.222260" lon="-112.266730">
        <ele>2042.946</ele>
        <time>2018-12-29T04:39:16Z</time>
      </trkpt>
      <trkpt lat="35.222260" lon="-112.267240">
        <ele>2041.461</ele>
        <time>2018-12-29T04:39:36Z</time>
      </trkpt>
      <trkpt lat="35.222260" lon="-112.267640">
        <ele>2039.291</ele>
        <time>2018-12-29T04:39:56Z</time>
      </trkpt>
      <trkpt lat="35.222270" lon="-112.268070">
        <ele>2037.583</ele>
        <time>2018-12-29T04:40:16Z</time>
      </trkpt>
      <trkpt lat="35.222280" lon="-112.268470">
        <ele>2037.567</ele>
        <time>2018-12-29T04:40:36Z</time>
      </trkpt>
      <trkpt lat="35.222290" lon="-112.268880">
        <ele>2037.421</ele>
        <time>2018-12-29T04:40:56Z</time>
      </trkpt>
      <trkpt lat="35.222310" lon="-112.269280">
        <ele>2036.941</ele>
        <time>2018-12-29T04:41:16Z</time>
      </trkpt>
      <trkpt lat="35.222320" lon="-112.269680">
        <ele>2033.005</ele>
        <time>2018-12-29T04:41:36Z</time>
      </trkpt>
      <trkpt lat="35.222320" lon="-112.269960">
        <ele>2032.608</ele>
        <time>2018-12-29T04:41:56Z</time>
      </trkpt>
      <trkpt lat="35.222320" lon="-112.270220">
        <ele>2032.225</ele>
        <time>2018-12-29T04:42:16Z</time>
      </trkpt>
      <trkpt lat="35.222310" lon="-112.270760">
        <ele>2028.673</ele>
        <time>2018-12-29T04:42:36Z</time>
      </trkpt>
      <trkpt lat="35.222300" lon="-112.271040">
        <ele>2027.998</ele>
        <time>2018-12-29T04:42:56Z</time>
      </trkpt>
      <trkpt lat="35.222280" lon="-112.271300">
        <ele>2027.789</ele>
        <time>2018-12-29T04:43:16Z</time>
      </trkpt>
      <trkpt lat="35.222250" lon="-112.271610">
        <ele>2027.694</ele>
        <time>2018-12-29T04:43:36Z</time>
      </trkpt>
      <trkpt lat="35.222210" lon="-112.271970">
        <ele>2026.044</ele>
        <time>2018-12-29T04:43:56Z</time>
      </trkpt>
      <trkpt lat="35.222140" lon="-112.272510">
        <ele>2023.746</ele>
        <time>2018-12-29T04:44:16Z</time>
      </trkpt>
      <trkpt lat="35.222070" lon="-112.272910">
        <ele>2023.410</ele>
        <time>2018-12-29T04:44:36Z</time>
      </trkpt>
      <trkpt lat="35.222020" lon="-112.273180">
        <ele>2023.471</ele>
        <time>2018-12-29T04:44:56Z</time>
      </trkpt>
      <trkpt lat="35.221970" lon="-112.273440">
        <ele>2022.941</ele>
        <time>2018-12-29T04:45:16Z</time>
      </trkpt>
      <trkpt lat="35.221930" lon="-112.273610">
        <ele>2021.215</ele>
        <time>2018-12-29T04:45:36Z</time>
      </trkpt>
      <trkpt lat="35.221870" lon="-112.273820">
        <ele>2018.808</ele>
        <time>2018-12-29T04:45:56Z</time>
      </trkpt>
      <trkpt lat="35.221810" lon="-112.274080">
        <ele>2017.940</ele>
        <time>2018-12-29T04:46:16Z</time>
      </trkpt>
      <trkpt lat="35.221700" lon="-112.274470">
        <ele>2016.878</ele>
        <time>2018-12-29T04:46:36Z</time>
      </trkpt>
      <trkpt lat="35.221610" lon="-112.274750">
        <ele>2015.073</ele>
        <time>2018-12-29T04:46:56Z</time>
      </trkpt>
      <trkpt lat="35.221490" lon="-112.275130">
        <ele>2013.054</ele>
        <time>2018-12-29T04:47:16Z</time>
      </trkpt>
      <trkpt lat="35.221330" lon="-112.275580">
        <ele>2012.649</ele>
        <time>2018-12-29T04:47:36Z</time>
      </trkpt>
      <trkpt lat="35.221270" lon="-112.275730">
        <ele>2012.629</ele>
        <time>2018-12-29T04:47:56Z</time>
      </trkpt>
      <trkpt lat="35.221220" lon="-112.275840">
        <ele>2012.691</ele>
        <time>2018-12-29T04:48:16Z</time>
      </trkpt>
      <trkpt lat="35.221170" lon="-112.275980">
        <ele>2012.585</ele>
        <time>2018-12-29T04:48:36Z</time>
      </trkpt>
      <trkpt lat="35.221050" lon="-112.276280">
        <ele>2011.893</ele>
        <time>2018-12-29T04:48:56Z</time>
      </trkpt>
      <trkpt lat="35.221000" lon="-112.276420">
        <ele>2011.165</ele>
        <time>2018-12-29T04:49:16Z</time>
      </trkpt>
      <trkpt lat="35.220950" lon="-112.276560">
        <ele>2010.521</ele>
        <time>2018-12-29T04:49:36Z</time>
      </trkpt>
      <trkpt lat="35.220850" lon="-112.276820">
        <ele>2010.308</ele>
        <time>2018-12-29T04:49:56Z</time>
      </trkpt>
      <trkpt lat="35.220750" lon="-112.277050">
        <ele>2009.672</ele>
        <time>2018-12-29T04:50:16Z</time>
      </trkpt>
      <trkpt lat="35.220610" lon="-112.277390">
        <ele>2008.150</ele>
        <time>2018-12-29T04:50:36Z</time>
      </trkpt>
      <trkpt lat="35.220400" lon="-112.277900">
        <ele>2006.915</ele>
        <time>2018-12-29T04:50:56Z</time>
      </trkpt>
      <trkpt lat="35.220180" lon="-112.278510">
        <ele>2006.596</ele>
        <time>2018-12-29T04:51:16Z</time>
      </trkpt>
      <trkpt lat="35.220080" lon="-112.278860">
        <ele>2005.921</ele>
        <time>2018-12-29T04:51:36Z</time>
      </trkpt>
      <trkpt lat="35.219990" lon="-112.279160">
        <ele>2004.051</ele>
        <time>2018-12-29T04:51:56Z</time>
      </trkpt>
      <trkpt lat="35.219890" lon="-112.279550">
        <ele>2001.153</ele>
        <time>2018-12-29T04:52:16Z</time>
      </trkpt>
      <trkpt lat="35.219810" lon="-112.279930">
        <ele>1999.897</ele>
        <time>2018-12-29T04:52:36Z</time>
      </trkpt>
      <trkpt lat="35.219760" lon="-112.280190">
        <ele>1999.427</ele>
        <time>2018-12-29T04:52:56Z</time>
      </trkpt>
      <trkpt lat="35.219690" lon="-112.280590">
        <ele>1999.068</ele>
        <time>2018-12-29T04:53:16Z</time>
      </trkpt>
      <trkpt lat="35.219630" lon="-112.281000">
        <ele>1998.014</ele>
        <time>2018-12-29T04:53:36Z</time>
      </trkpt>
      <trkpt lat="35.219580" lon="-112.281390">
        <ele>1996.908</ele>
        <time>2018-12-29T04:53:56Z</time>
      </trkpt>
      <trkpt lat="35.219550" lon="-112.281800">
        <ele>1994.665</ele>
        <time>2018-12-29T04:54:16Z</time>
      </trkpt>
      <trkpt lat="35.219530" lon="-112.282070">
        <ele>1994.763</ele>
        <time>2018-12-29T04:54:36Z</time>
      </trkpt>
      <trkpt lat="35.219520" lon="-112.282260">
        <ele>1994.678</ele>
        <time>2018-12-29T04:54:56Z</time>
      </trkpt>
      <trkpt lat="35.219510" lon="-112.282470">
        <ele>1994.649</ele>
        <time>2018-12-29T04:55:16Z</time>
      </trkpt>
      <trkpt lat="35.219510" lon="-112.282870">
        <ele>1994.814</ele>
        <time>2018-12-29T04:55:36Z</time>
      </trkpt>
      <trkpt lat="35.219510" lon="-112.283040">
        <ele>1995.814</ele>
        <time>2018-12-29T04:55:56Z</time>
      </trkpt>
      <trkpt lat="35.219520" lon="-112.283270">
        <ele>1997.026</ele>
        <time>2018-12-29T04:56:16Z</time>
      </trkpt>
      <trkpt lat="35.219530" lon="-112.283480">
        <ele>1997.730</ele>
        <time>2018-12-29T04:56:36Z</time>
      </trkpt>
      <trkpt lat="35.219540" lon="-112.283680">
        <ele>1997.595</ele>
        <time>2018-12-29T04:56:56Z</time>
      </trkpt>
      <trkpt lat="35.219560" lon="-112.283950">
        <ele>1997.049</ele>
        <time>2018-12-29T04:57:16Z</time>
      </trkpt>
      <trkpt lat="35.219580" lon="-112.284210">
        <ele>1996.523</ele>
        <time>2018-12-29T04:57:36Z</time>
      </trkpt>
      <trkpt lat="35.219610" lon="-112.284470">
        <ele>1995.508</ele>
        <time>2018-12-29T04:57:56Z</time>
      </trkpt>
      <trkpt lat="35.219650" lon="-112.284760">
        <ele>1994.482</ele>
        <time>2018-12-29T04:58:16Z</time>
      </trkpt>
      <trkpt lat="35.219690" lon="-112.285010">
        <ele>1992.780</ele>
        <time>2018-12-29T04:58:36Z</time>
      </trkpt>
      <trkpt lat="35.219740" lon="-112.285270">
        <ele>1990.525</ele>
        <time>2018-12-29T04:58:56Z</time>
      </trkpt>
      <trkpt lat="35.219790" lon="-112.285550">
        <ele>1991.126</ele>
        <time>2018-12-29T04:59:16Z</time>
      </trkpt>
      <trkpt lat="35.219940" lon="-112.286200">
        <ele>1989.521</ele>
        <time>2018-12-29T04:59:36Z</time>
      </trkpt>
      <trkpt lat="35.219960" lon="-112.286270">
        <ele>1989.631</ele>
        <time>2018-12-29T04:59:56Z</time>
      </trkpt>
      <trkpt lat="35.220110" lon="-112.286840">
        <ele>1989.423</ele>
        <time>2018-12-29T05:00:16Z</time>
      </trkpt>
      <trkpt lat="35.220330" lon="-112.287510">
        <ele>1990.287</ele>
        <time>2018-12-29T05:00:36Z</time>
      </trkpt>
      <trkpt lat="35.220920" lon="-112.289250">
        <ele>1985.129</ele>
        <time>2018-12-29T05:00:56Z</time>
      </trkpt>
      <trkpt lat="35.220950" lon="-112.289350">
        <ele>1984.900</ele>
        <time>2018-12-29T05:01:16Z</time>
      </trkpt>
      <trkpt lat="35.221160" lon="-112.289980">
        <ele>1983.120</ele>
        <time>2018-12-29T05:01:36Z</time>
      </trkpt>
      <trkpt lat="35.221280" lon="-112.290360">
        <ele>1983.108</ele>
        <time>2018-12-29T05:01:56Z</time>
      </trkpt>
      <trkpt lat="35.221440" lon="-112.290860">
        <ele>1983.635</ele>
        <time>2018-12-29T05:02:16Z</time>
      </trkpt>
      <trkpt lat="35.221550" lon="-112.291220">
        <ele>1983.143</ele>
        <time>2018-12-29T05:02:36Z</time>
      </trkpt>
      <trkpt lat="35.221670" lon="-112.291700">
        <ele>1981.138</ele>
        <time>2018-12-29T05:02:56Z</time>
      </trkpt>
      <trkpt lat="35.221750" lon="-112.292080">
        <ele>1981.519</ele>
        <time>2018-12-29T05:03:16Z</time>
      </trkpt>
      <trkpt lat="35.221830" lon="-112.292550">
        <ele>1981.014</ele>
        <time>2018-12-29T05:03:36Z</time>
      </trkpt>
      <trkpt lat="35.221870" lon="-112.292810">
        <ele>1981.214</ele>
        <time>2018-12-29T05:03:56Z</time>
      </trkpt>
      <trkpt lat="35.221930" lon="-112.293220">
        <ele>1981.346</ele>
        <time>2018-12-29T05:04:16Z</time>
      </trkpt>
      <trkpt lat="35.221990" lon="-112.293890">
        <ele>1979.080</ele>
        <time>2018-12-29T05:04:36Z</time>
      </trkpt>
      <trkpt lat="35.222000" lon="-112.294430">
        <ele>1977.368</ele>
        <time>2018-12-29T05:04:56Z</time>
      </trkpt>
      <trkpt lat="35.222010" lon="-112.294690">
        <ele>1975.742</ele>
        <time>2018-12-29T05:05:16Z</time>
      </trkpt>
      <trkpt lat="35.222000" lon="-112.294970">
        <ele>1974.326</ele>
        <time>2018-12-29T05:05:36Z</time>
      </trkpt>
      <trkpt lat="35.222000" lon="-112.295240">
        <ele>1972.808</ele>
        <time>2018-12-29T05:05:56Z</time>
      </trkpt>
      <trkpt lat="35.221980" lon="-112.295520">
        <ele>1971.539</ele>
        <time>2018-12-29T05:06:16Z</time>
      </trkpt>
      <trkpt lat="35.221960" lon="-112.295830">
        <ele>1970.347</ele>
        <time>2018-12-29T05:06:36Z</time>
      </trkpt>
      <trkpt lat="35.221920" lon="-112.296200">
        <ele>1970.132</ele>
        <time>2018-12-29T05:06:56Z</time>
      </trkpt>
      <trkpt lat="35.221870" lon="-112.296600">
        <ele>1970.013</ele>
        <time>2018-12-29T05:07:16Z</time>
      </trkpt>
      <trkpt lat="35.221780" lon="-112.297120">
        <ele>1969.828</ele>
        <time>2018-12-29T05:07:36Z</time>
      </trkpt>
      <trkpt lat="35.221710" lon="-112.297500">
        <ele>1968.528</ele>
        <time>2018-12-29T05:07:56Z</time>
      </trkpt>
      <trkpt lat="35.221580" lon="-112.298030">
        <ele>1967.880</ele>
        <time>2018-12-29T05:08:16Z</time>
      </trkpt>
      <trkpt lat="35.221500" lon="-112.298320">
        <ele>1967.874</ele>
        <time>2018-12-29T05:08:36Z</time>
      </trkpt>
      <trkpt lat="35.221390" lon="-112.298670">
        <ele>1968.076</ele>
        <time>2018-12-29T05:08:56Z</time>
      </trkpt>
      <trkpt lat="35.221180" lon="-112.299300">
        <ele>1968.690</ele>
        <time>2018-12-29T05:09:16Z</time>
      </trkpt>
      <trkpt lat="35.220910" lon="-112.300120">
        <ele>1969.819</ele>
        <time>2018-12-29T05:09:36Z</time>
      </trkpt>
      <trkpt lat="35.220680" lon="-112.300760">
        <ele>1971.008</ele>
        <time>2018-12-29T05:09:56Z</time>
      </trkpt>
      <trkpt lat="35.220520" lon="-112.301260">
        <ele>1971.120</ele>
        <time>2018-12-29T05:10:16Z</time>
      </trkpt>
      <trkpt lat="35.220380" lon="-112.301760">
        <ele>1972.778</ele>
        <time>2018-12-29T05:10:36Z</time>
      </trkpt>
      <trkpt lat="35.220270" lon="-112.302270">
        <ele>1973.833</ele>
        <time>2018-12-29T05:10:56Z</time>
      </trkpt>
      <trkpt lat="35.220180" lon="-112.302790">
        <ele>1976.874</ele>
        <time>2018-12-29T05:11:16Z</time>
      </trkpt>
      <trkpt lat="35.220170" lon="-112.302860">
        <ele>1977.149</ele>
        <time>2018-12-29T05:11:36Z</time>
      </trkpt>
      <trkpt lat="35.220100" lon="-112.303310">
        <ele>1978.189</ele>
        <time>2018-12-29T05:11:56Z</time>
      </trkpt>
      <trkpt lat="35.220060" lon="-112.303610">
        <ele>1979.251</ele>
        <time>2018-12-29T05:12:16Z</time>
      </trkpt>
      <trkpt lat="35.220020" lon="-112.303990">
        <ele>1980.315</ele>
        <time>2018-12-29T05:12:36Z</time>
      </trkpt>
      <trkpt lat="35.219980" lon="-112.304500">
        <ele>1982.154</ele>
        <time>2018-12-29T05:12:56Z</time>
      </trkpt>
      <trkpt lat="35.219960" lon="-112.305030">
        <ele>1983.156</ele>
        <time>2018-12-29T05:13:16Z</time>
      </trkpt>
      <trkpt lat="35.219950" lon="-112.305310">
        <ele>1983.611</ele>
        <time>2018-12-29T05:13:36Z</time>
      </trkpt>
      <trkpt lat="35.219960" lon="-112.305590">
        <ele>1983.708</ele>
        <time>2018-12-29T05:13:56Z</time>
      </trkpt>
      <trkpt lat="35.219960" lon="-112.306000">
        <ele>1983.668</ele>
        <time>2018-12-29T05:14:16Z</time>
      </trkpt>
      <trkpt lat="35.219980" lon="-112.306270">
        <ele>1983.686</ele>
        <time>2018-12-29T05:14:36Z</time>
      </trkpt>
      <trkpt lat="35.219990" lon="-112.306540">
        <ele>1983.241</ele>
        <time>2018-12-29T05:14:56Z</time>
      </trkpt>
      <trkpt lat="35.220020" lon="-112.306950">
        <ele>1983.272</ele>
        <time>2018-12-29T05:15:16Z</time>
      </trkpt>
      <trkpt lat="35.220050" lon="-112.307190">
        <ele>1983.427</ele>
        <time>2018-12-29T05:15:36Z</time>
      </trkpt>
      <trkpt lat="35.220050" lon="-112.307220">
        <ele>1983.427</ele>
        <time>2018-12-29T05:15:56Z</time>
      </trkpt>
      <trkpt lat="35.220080" lon="-112.307500">
        <ele>1983.749</ele>
        <time>2018-12-29T05:16:16Z</time>
      </trkpt>
      <trkpt lat="35.220120" lon="-112.307750">
        <ele>1985.423</ele>
        <time>2018-12-29T05:16:36Z</time>
      </trkpt>
      <trkpt lat="35.220210" lon="-112.308270">
        <ele>1987.987</ele>
        <time>2018-12-29T05:16:56Z</time>
      </trkpt>
      <trkpt lat="35.220310" lon="-112.308790">
        <ele>1988.842</ele>
        <time>2018-12-29T05:17:16Z</time>
      </trkpt>
      <trkpt lat="35.220460" lon="-112.309430">
        <ele>1992.826</ele>
        <time>2018-12-29T05:17:36Z</time>
      </trkpt>
      <trkpt lat="35.220570" lon="-112.309950">
        <ele>1994.008</ele>
        <time>2018-12-29T05:17:56Z</time>
      </trkpt>
      <trkpt lat="35.220740" lon="-112.310720">
        <ele>1997.471</ele>
        <time>2018-12-29T05:18:16Z</time>
      </trkpt>
      <trkpt lat="35.220910" lon="-112.311510">
        <ele>1998.539</ele>
        <time>2018-12-29T05:18:36Z</time>
      </trkpt>
      <trkpt lat="35.221090" lon="-112.312290">
        <ele>2000.074</ele>
        <time>2018-12-29T05:18:56Z</time>
      </trkpt>
      <trkpt lat="35.221240" lon="-112.312940">
        <ele>2000.385</ele>
        <time>2018-12-29T05:19:16Z</time>
      </trkpt>
      <trkpt lat="35.221350" lon="-112.313460">
        <ele>2000.740</ele>
        <time>2018-12-29T05:19:36Z</time>
      </trkpt>
      <trkpt lat="35.221470" lon="-112.313990">
        <ele>2001.590</ele>
        <time>2018-12-29T05:19:56Z</time>
      </trkpt>
      <trkpt lat="35.221590" lon="-112.314570">
        <ele>2000.642</ele>
        <time>2018-12-29T05:20:16Z</time>
      </trkpt>
      <trkpt lat="35.222640" lon="-112.319340">
        <ele>1994.646</ele>
        <time>2018-12-29T05:20:36Z</time>
      </trkpt>
      <trkpt lat="35.222830" lon="-112.320230">
        <ele>1993.131</ele>
        <time>2018-12-29T05:20:56Z</time>
      </trkpt>
      <trkpt lat="35.223040" lon="-112.321200">
        <ele>1989.461</ele>
        <time>2018-12-29T05:21:16Z</time>
      </trkpt>
      <trkpt lat="35.223120" lon="-112.321780">
        <ele>1988.007</ele>
        <time>2018-12-29T05:21:36Z</time>
      </trkpt>
      <trkpt lat="35.223180" lon="-112.322180">
        <ele>1986.808</ele>
        <time>2018-12-29T05:21:56Z</time>
      </trkpt>
      <trkpt lat="35.223230" lon="-112.322690">
        <ele>1984.166</ele>
        <time>2018-12-29T05:22:16Z</time>
      </trkpt>
      <trkpt lat="35.223260" lon="-112.323000">
        <ele>1983.024</ele>
        <time>2018-12-29T05:22:36Z</time>
      </trkpt>
      <trkpt lat="35.223280" lon="-112.323220">
        <ele>1982.419</ele>
        <time>2018-12-29T05:22:56Z</time>
      </trkpt>
      <trkpt lat="35.223300" lon="-112.323740">
        <ele>1981.170</ele>
        <time>2018-12-29T05:23:16Z</time>
      </trkpt>
      <trkpt lat="35.223300" lon="-112.324220">
        <ele>1978.315</ele>
        <time>2018-12-29T05:23:36Z</time>
      </trkpt>
      <trkpt lat="35.223270" lon="-112.324990">
        <ele>1974.355</ele>
        <time>2018-12-29T05:23:56Z</time>
      </trkpt>
      <trkpt lat="35.223230" lon="-112.325560">
        <ele>1969.917</ele>
        <time>2018-12-29T05:24:16Z</time>
      </trkpt>
      <trkpt lat="35.223120" lon="-112.326420">
        <ele>1964.721</ele>
        <time>2018-12-29T05:24:36Z</time>
      </trkpt>
      <trkpt lat="35.222990" lon="-112.327220">
        <ele>1961.644</ele>
        <time>2018-12-29T05:24:56Z</time>
      </trkpt>
      <trkpt lat="35.222800" lon="-112.328380">
        <ele>1956.905</ele>
        <time>2018-12-29T05:25:16Z</time>
      </trkpt>
      <trkpt lat="35.222640" lon="-112.329330">
        <ele>1949.015</ele>
        <time>2018-12-29T05:25:36Z</time>
      </trkpt>
      <trkpt lat="35.222420" lon="-112.330630">
        <ele>1943.608</ele>
        <time>2018-12-29T05:25:56Z</time>
      </trkpt>
      <trkpt lat="35.222320" lon="-112.331190">
        <ele>1938.737</ele>
        <time>2018-12-29T05:26:16Z</time>
      </trkpt>
      <trkpt lat="35.222200" lon="-112.331690">
        <ele>1938.025</ele>
        <time>2018-12-29T05:26:36Z</time>
      </trkpt>
      <trkpt lat="35.222010" lon="-112.332440">
        <ele>1931.350</ele>
        <time>2018-12-29T05:26:56Z</time>
      </trkpt>
      <trkpt lat="35.221850" lon="-112.332920">
        <ele>1930.771</ele>
        <time>2018-12-29T05:27:16Z</time>
      </trkpt>
      <trkpt lat="35.221690" lon="-112.333400">
        <ele>1925.116</ele>
        <time>2018-12-29T05:27:36Z</time>
      </trkpt>
      <trkpt lat="35.221520" lon="-112.333870">
        <ele>1923.086</ele>
        <time>2018-12-29T05:27:56Z</time>
      </trkpt>
      <trkpt lat="35.221340" lon="-112.334310">
        <ele>1920.188</ele>
        <time>2018-12-29T05:28:16Z</time>
      </trkpt>
      <trkpt lat="35.221120" lon="-112.334800">
        <ele>1916.792</ele>
        <time>2018-12-29T05:28:36Z</time>
      </trkpt>
      <trkpt lat="35.220870" lon="-112.335320">
        <ele>1912.461</ele>
        <time>2018-12-29T05:28:56Z</time>
      </trkpt>
      <trkpt lat="35.220460" lon="-112.336190">
        <ele>1890.021</ele>
        <time>2018-12-29T05:29:16Z</time>
      </trkpt>
      <trkpt lat="35.220060" lon="-112.336850">
        <ele>1903.513</ele>
        <time>2018-12-29T05:29:36Z</time>
      </trkpt>
      <trkpt lat="35.219840" lon="-112.337320">
        <ele>1900.508</ele>
        <time>2018-12-29T05:29:56Z</time>
      </trkpt>
      <trkpt lat="35.219640" lon="-112.337800">
        <ele>1901.049</ele>
        <time>2018-12-29T05:30:16Z</time>
      </trkpt>
      <trkpt lat="35.219360" lon="-112.338560">
        <ele>1901.387</ele>
        <time>2018-12-29T05:30:36Z</time>
      </trkpt>
      <trkpt lat="35.219200" lon="-112.339050">
        <ele>1899.972</ele>
        <time>2018-12-29T05:30:56Z</time>
      </trkpt>
      <trkpt lat="35.219110" lon="-112.339350">
        <ele>1897.093</ele>
        <time>2018-12-29T05:31:16Z</time>
      </trkpt>
      <trkpt lat="35.218990" lon="-112.339800">
        <ele>1896.188</ele>
        <time>2018-12-29T05:31:36Z</time>
      </trkpt>
      <trkpt lat="35.218880" lon="-112.340240">
        <ele>1895.118</ele>
        <time>2018-12-29T05:31:56Z</time>
      </trkpt>
      <trkpt lat="35.218770" lon="-112.340730">
        <ele>1893.730</ele>
        <time>2018-12-29T05:32:16Z</time>
      </trkpt>
      <trkpt lat="35.218710" lon="-112.341060">
        <ele>1892.384</ele>
        <time>2018-12-29T05:32:36Z</time>
      </trkpt>
      <trkpt lat="35.218660" lon="-112.341380">
        <ele>1890.076</ele>
        <time>2018-12-29T05:32:56Z</time>
      </trkpt>
      <trkpt lat="35.218590" lon="-112.341790">
        <ele>1888.390</ele>
        <time>2018-12-29T05:33:16Z</time>
      </trkpt>
      <trkpt lat="35.218490" lon="-112.342350">
        <ele>1886.719</ele>
        <time>2018-12-29T05:33:36Z</time>
      </trkpt>
      <trkpt lat="35.218300" lon="-112.343600">
        <ele>1866.808</ele>
        <time>2018-12-29T05:33:56Z</time>
      </trkpt>
      <trkpt lat="35.217970" lon="-112.345520">
        <ele>1875.780</ele>
        <time>2018-12-29T05:34:16Z</time>
      </trkpt>
      <trkpt lat="35.217800" lon="-112.346530">
        <ele>1875.968</ele>
        <time>2018-12-29T05:34:36Z</time>
      </trkpt>
      <trkpt lat="35.217720" lon="-112.346960">
        <ele>1875.763</ele>
        <time>2018-12-29T05:34:56Z</time>
      </trkpt>
      <trkpt lat="35.217650" lon="-112.347320">
        <ele>1874.734</ele>
        <time>2018-12-29T05:35:16Z</time>
      </trkpt>
      <trkpt lat="35.217450" lon="-112.348080">
        <ele>1871.079</ele>
        <time>2018-12-29T05:35:36Z</time>
      </trkpt>
      <trkpt lat="35.217310" lon="-112.348600">
        <ele>1872.199</ele>
        <time>2018-12-29T05:35:56Z</time>
      </trkpt>
      <trkpt lat="35.217150" lon="-112.349110">
        <ele>1870.661</ele>
        <time>2018-12-29T05:36:16Z</time>
      </trkpt>
      <trkpt lat="35.216920" lon="-112.349710">
        <ele>1865.355</ele>
        <time>2018-12-29T05:36:36Z</time>
      </trkpt>
      <trkpt lat="35.216680" lon="-112.350320">
        <ele>1863.287</ele>
        <time>2018-12-29T05:36:56Z</time>
      </trkpt>
      <trkpt lat="35.216440" lon="-112.350920">
        <ele>1858.142</ele>
        <time>2018-12-29T05:37:16Z</time>
      </trkpt>
      <trkpt lat="35.216240" lon="-112.351410">
        <ele>1857.526</ele>
        <time>2018-12-29T05:37:36Z</time>
      </trkpt>
      <trkpt lat="35.216140" lon="-112.351690">
        <ele>1857.108</ele>
        <time>2018-12-29T05:37:56Z</time>
      </trkpt>
      <trkpt lat="35.216010" lon="-112.352030">
        <ele>1854.941</ele>
        <time>2018-12-29T05:38:16Z</time>
      </trkpt>
      <trkpt lat="35.215830" lon="-112.352530">
        <ele>1851.249</ele>
        <time>2018-12-29T05:38:36Z</time>
      </trkpt>
      <trkpt lat="35.215690" lon="-112.353030">
        <ele>1850.344</ele>
        <time>2018-12-29T05:38:56Z</time>
      </trkpt>
      <trkpt lat="35.215550" lon="-112.353540">
        <ele>1847.935</ele>
        <time>2018-12-29T05:39:16Z</time>
      </trkpt>
      <trkpt lat="35.215480" lon="-112.353800">
        <ele>1845.970</ele>
        <time>2018-12-29T05:39:36Z</time>
      </trkpt>
      <trkpt lat="35.215420" lon="-112.354060">
        <ele>1845.370</ele>
        <time>2018-12-29T05:39:56Z</time>
      </trkpt>
      <trkpt lat="35.215290" lon="-112.354710">
        <ele>1844.432</ele>
        <time>2018-12-29T05:40:16Z</time>
      </trkpt>
      <trkpt lat="35.215200" lon="-112.355240">
        <ele>1843.026</ele>
        <time>2018-12-29T05:40:36Z</time>
      </trkpt>
      <trkpt lat="35.215160" lon="-112.355490">
        <ele>1841.923</ele>
        <time>2018-12-29T05:40:56Z</time>
      </trkpt>
      <trkpt lat="35.215120" lon="-112.355810">
        <ele>1840.683</ele>
        <time>2018-12-29T05:41:16Z</time>
      </trkpt>
      <trkpt lat="35.215080" lon="-112.356130">
        <ele>1840.111</ele>
        <time>2018-12-29T05:41:36Z</time>
      </trkpt>
      <trkpt lat="35.215010" lon="-112.356940">
        <ele>1836.708</ele>
        <time>2018-12-29T05:41:56Z</time>
      </trkpt>
      <trkpt lat="35.214980" lon="-112.357410">
        <ele>1834.845</ele>
        <time>2018-12-29T05:42:16Z</time>
      </trkpt>
      <trkpt lat="35.214970" lon="-112.357840">
        <ele>1833.293</ele>
        <time>2018-12-29T05:42:36Z</time>
      </trkpt>
      <trkpt lat="35.214970" lon="-112.358390">
        <ele>1831.688</ele>
        <time>2018-12-29T05:42:56Z</time>
      </trkpt>
      <trkpt lat="35.214990" lon="-112.358940">
        <ele>1830.159</ele>
        <time>2018-12-29T05:43:16Z</time>
      </trkpt>
      <trkpt lat="35.215020" lon="-112.359440">
        <ele>1829.054</ele>
        <time>2018-12-29T05:43:36Z</time>
      </trkpt>
      <trkpt lat="35.215040" lon="-112.359780">
        <ele>1828.244</ele>
        <time>2018-12-29T05:43:56Z</time>
      </trkpt>
      <trkpt lat="35.215070" lon="-112.360090">
        <ele>1827.116</ele>
        <time>2018-12-29T05:44:16Z</time>
      </trkpt>
      <trkpt lat="35.215150" lon="-112.360740">
        <ele>1824.380</ele>
        <time>2018-12-29T05:44:36Z</time>
      </trkpt>
      <trkpt lat="35.215200" lon="-112.361020">
        <ele>1823.916</ele>
        <time>2018-12-29T05:44:56Z</time>
      </trkpt>
      <trkpt lat="35.215260" lon="-112.361400">
        <ele>1822.976</ele>
        <time>2018-12-29T05:45:16Z</time>
      </trkpt>
      <trkpt lat="35.215370" lon="-112.361960">
        <ele>1819.813</ele>
        <time>2018-12-29T05:45:36Z</time>
      </trkpt>
      <trkpt lat="35.215570" lon="-112.362850">
        <ele>1818.308</ele>
        <time>2018-12-29T05:45:56Z</time>
      </trkpt>
      <trkpt lat="35.215680" lon="-112.363330">
        <ele>1817.634</ele>
        <time>2018-12-29T05:46:16Z</time>
      </trkpt>
      <trkpt lat="35.215780" lon="-112.363780">
        <ele>1815.392</ele>
        <time>2018-12-29T05:46:36Z</time>
      </trkpt>
      <trkpt lat="35.215860" lon="-112.364120">
        <ele>1814.187</ele>
        <time>2018-12-29T05:46:56Z</time>
      </trkpt>
      <trkpt lat="35.215990" lon="-112.364640">
        <ele>1813.268</ele>
        <time>2018-12-29T05:47:16Z</time>
      </trkpt>
      <trkpt lat="35.216110" lon="-112.365170">
        <ele>1812.383</ele>
        <time>2018-12-29T05:47:36Z</time>
      </trkpt>
      <trkpt lat="35.216230" lon="-112.365680">
        <ele>1810.593</ele>
        <time>2018-12-29T05:47:56Z</time>
      </trkpt>
      <trkpt lat="35.216340" lon="-112.366190">
        <ele>1808.385</ele>
        <time>2018-12-29T05:48:16Z</time>
      </trkpt>
      <trkpt lat="35.216470" lon="-112.366710">
        <ele>1807.089</ele>
        <time>2018-12-29T05:48:36Z</time>
      </trkpt>
      <trkpt lat="35.216580" lon="-112.367220">
        <ele>1806.126</ele>
        <time>2018-12-29T05:48:56Z</time>
      </trkpt>
      <trkpt lat="35.216700" lon="-112.367730">
        <ele>1805.947</ele>
        <time>2018-12-29T05:49:16Z</time>
      </trkpt>
      <trkpt lat="35.216770" lon="-112.368020">
        <ele>1806.611</ele>
        <time>2018-12-29T05:49:36Z</time>
      </trkpt>
      <trkpt lat="35.216880" lon="-112.368550">
        <ele>1800.008</ele>
        <time>2018-12-29T05:49:56Z</time>
      </trkpt>
      <trkpt lat="35.216880" lon="-112.368560">
        <ele>1800.035</ele>
        <time>2018-12-29T05:50:16Z</time>
      </trkpt>
      <trkpt lat="35.216970" lon="-112.369050">
        <ele>1800.333</ele>
        <time>2018-12-29T05:50:36Z</time>
      </trkpt>
      <trkpt lat="35.217070" lon="-112.369690">
        <ele>1800.988</ele>
        <time>2018-12-29T05:50:56Z</time>
      </trkpt>
      <trkpt lat="35.217130" lon="-112.370370">
        <ele>1801.419</ele>
        <time>2018-12-29T05:51:16Z</time>
      </trkpt>
      <trkpt lat="35.217150" lon="-112.370650">
        <ele>1801.364</ele>
        <time>2018-12-29T05:51:36Z</time>
      </trkpt>
      <trkpt lat="35.217180" lon="-112.371030">
        <ele>1800.634</ele>
        <time>2018-12-29T05:51:56Z</time>
      </trkpt>
      <trkpt lat="35.217180" lon="-112.371550">
        <ele>1798.856</ele>
        <time>2018-12-29T05:52:16Z</time>
      </trkpt>
      <trkpt lat="35.217180" lon="-112.371850">
        <ele>1798.550</ele>
        <time>2018-12-29T05:52:36Z</time>
      </trkpt>
      <trkpt lat="35.217180" lon="-112.372040">
        <ele>1798.232</ele>
        <time>2018-12-29T05:52:56Z</time>
      </trkpt>
      <trkpt lat="35.217170" lon="-112.372230">
        <ele>1797.992</ele>
        <time>2018-12-29T05:53:16Z</time>
      </trkpt>
      <trkpt lat="35.217150" lon="-112.372600">
        <ele>1797.311</ele>
        <time>2018-12-29T05:53:36Z</time>
      </trkpt>
      <trkpt lat="35.217130" lon="-112.372890">
        <ele>1796.908</ele>
        <time>2018-12-29T05:53:56Z</time>
      </trkpt>
      <trkpt lat="35.217080" lon="-112.373380">
        <ele>1795.756</ele>
        <time>2018-12-29T05:54:16Z</time>
      </trkpt>
      <trkpt lat="35.217030" lon="-112.373770">
        <ele>1794.684</ele>
        <time>2018-12-29T05:54:36Z</time>
      </trkpt>
      <trkpt lat="35.216960" lon="-112.374310">
        <ele>1792.479</ele>
        <time>2018-12-29T05:54:56Z</time>
      </trkpt>
      <trkpt lat="35.216910" lon="-112.374690">
        <ele>1791.260</ele>
        <time>2018-12-29T05:55:16Z</time>
      </trkpt>
      <trkpt lat="35.216900" lon="-112.374830">
        <ele>1790.745</ele>
        <time>2018-12-29T05:55:36Z</time>
      </trkpt>
      <trkpt lat="35.216840" lon="-112.375250">
        <ele>1789.275</ele>
        <time>2018-12-29T05:55:56Z</time>
      </trkpt>
      <trkpt lat="35.216790" lon="-112.375620">
        <ele>1788.157</ele>
        <time>2018-12-29T05:56:16Z</time>
      </trkpt>
      <trkpt lat="35.216700" lon="-112.376400">
        <ele>1785.661</ele>
        <time>2018-12-29T05:56:36Z</time>
      </trkpt>
      <trkpt lat="35.216570" lon="-112.377350">
        <ele>1782.738</ele>
        <time>2018-12-29T05:56:56Z</time>
      </trkpt>
      <trkpt lat="35.216490" lon="-112.378050">
        <ele>1780.570</ele>
        <time>2018-12-29T05:57:16Z</time>
      </trkpt>
      <trkpt lat="35.216470" lon="-112.378230">
        <ele>1780.017</ele>
        <time>2018-12-29T05:57:36Z</time>
      </trkpt>
      <trkpt lat="35.216470" lon="-112.378240">
        <ele>1780.008</ele>
        <time>2018-12-29T05:57:56Z</time>
      </trkpt>
      <trkpt lat="35.216470" lon="-112.378250">
        <ele>1779.946</ele>
        <time>2018-12-29T05:58:16Z</time>
      </trkpt>
      <trkpt lat="35.216440" lon="-112.378430">
        <ele>1779.594</ele>
        <time>2018-12-29T05:58:36Z</time>
      </trkpt>
      <trkpt lat="35.216420" lon="-112.378650">
        <ele>1779.169</ele>
        <time>2018-12-29T05:58:56Z</time>
      </trkpt>
      <trkpt lat="35.216230" lon="-112.380690">
        <ele>1774.590</ele>
        <time>2018-12-29T05:59:16Z</time>
      </trkpt>
      <trkpt lat="35.216190" lon="-112.381680">
        <ele>1771.085</ele>
        <time>2018-12-29T05:59:36Z</time>
      </trkpt>
      <trkpt lat="35.216150" lon="-112.382850">
        <ele>1766.925</ele>
        <time>2018-12-29T05:59:56Z</time>
      </trkpt>
      <trkpt lat="35.216070" lon="-112.385490">
        <ele>1756.817</ele>
        <time>2018-12-29T06:00:16Z</time>
      </trkpt>
      <trkpt lat="35.216030" lon="-112.386680">
        <ele>1752.381</ele>
        <time>2018-12-29T06:00:36Z</time>
      </trkpt>
      <trkpt lat="35.216010" lon="-112.387380">
        <ele>1750.658</ele>
        <time>2018-12-29T06:00:56Z</time>
      </trkpt>
      <trkpt lat="35.216000" lon="-112.388020">
        <ele>1745.952</ele>
        <time>2018-12-29T06:01:16Z</time>
      </trkpt>
      <trkpt lat="35.216000" lon="-112.388430">
        <ele>1744.917</ele>
        <time>2018-12-29T06:01:36Z</time>
      </trkpt>
      <trkpt lat="35.216000" lon="-112.388700">
        <ele>1744.508</ele>
        <time>2018-12-29T06:01:56Z</time>
      </trkpt>
      <trkpt lat="35.216020" lon="-112.388980">
        <ele>1742.128</ele>
        <time>2018-12-29T06:02:16Z</time>
      </trkpt>
      <trkpt lat="35.216040" lon="-112.389380">
        <ele>1739.646</ele>
        <time>2018-12-29T06:02:36Z</time>
      </trkpt>
      <trkpt lat="35.216090" lon="-112.389920">
        <ele>1737.911</ele>
        <time>2018-12-29T06:02:56Z</time>
      </trkpt>
      <trkpt lat="35.216120" lon="-112.390210">
        <ele>1736.382</ele>
        <time>2018-12-29T06:03:16Z</time>
      </trkpt>
      <trkpt lat="35.216170" lon="-112.390590">
        <ele>1734.197</ele>
        <time>2018-12-29T06:03:36Z</time>
      </trkpt>
      <trkpt lat="35.216260" lon="-112.391120">
        <ele>1731.697</ele>
        <time>2018-12-29T06:03:56Z</time>
      </trkpt>
      <trkpt lat="35.216380" lon="-112.391780">
        <ele>1727.449</ele>
        <time>2018-12-29T06:04:16Z</time>
      </trkpt>
      <trkpt lat="35.216510" lon="-112.392410">
        <ele>1723.973</ele>
        <time>2018-12-29T06:04:36Z</time>
      </trkpt>
      <trkpt lat="35.216610" lon="-112.392960">
        <ele>1722.265</ele>
        <time>2018-12-29T06:04:56Z</time>
      </trkpt>
      <trkpt lat="35.216710" lon="-112.393620">
        <ele>1721.268</ele>
        <time>2018-12-29T06:05:16Z</time>
      </trkpt>
      <trkpt lat="35.216780" lon="-112.394300">
        <ele>1719.114</ele>
        <time>2018-12-29T06:05:36Z</time>
      </trkpt>
      <trkpt lat="35.216820" lon="-112.394830">
        <ele>1716.008</ele>
        <time>2018-12-29T06:05:56Z</time>
      </trkpt>
      <trkpt lat="35.216830" lon="-112.395160">
        <ele>1715.269</ele>
        <time>2018-12-29T06:06:16Z</time>
      </trkpt>
      <trkpt lat="35.216840" lon="-112.395510">
        <ele>1712.827</ele>
        <time>2018-12-29T06:06:36Z</time>
      </trkpt>
      <trkpt lat="35.216830" lon="-112.396050">
        <ele>1710.052</ele>
        <time>2018-12-29T06:06:56Z</time>
      </trkpt>
      <trkpt lat="35.216820" lon="-112.396330">
        <ele>1709.523</ele>
        <time>2018-12-29T06:07:16Z</time>
      </trkpt>
      <trkpt lat="35.216810" lon="-112.396600">
        <ele>1708.438</ele>
        <time>2018-12-29T06:07:36Z</time>
      </trkpt>
      <trkpt lat="35.216780" lon="-112.396980">
        <ele>1705.188</ele>
        <time>2018-12-29T06:07:56Z</time>
      </trkpt>
      <trkpt lat="35.216750" lon="-112.397260">
        <ele>1704.180</ele>
        <time>2018-12-29T06:08:16Z</time>
      </trkpt>
      <trkpt lat="35.216690" lon="-112.397800">
        <ele>1703.874</ele>
        <time>2018-12-29T06:08:36Z</time>
      </trkpt>
      <trkpt lat="35.216600" lon="-112.398370">
        <ele>1701.391</ele>
        <time>2018-12-29T06:08:56Z</time>
      </trkpt>
      <trkpt lat="35.216470" lon="-112.398980">
        <ele>1697.781</ele>
        <time>2018-12-29T06:09:16Z</time>
      </trkpt>
      <trkpt lat="35.216420" lon="-112.399240">
        <ele>1696.919</ele>
        <time>2018-12-29T06:09:36Z</time>
      </trkpt>
      <trkpt lat="35.216350" lon="-112.399490">
        <ele>1696.108</ele>
        <time>2018-12-29T06:09:56Z</time>
      </trkpt>
      <trkpt lat="35.216220" lon="-112.399970">
        <ele>1692.782</ele>
        <time>2018-12-29T06:10:16Z</time>
      </trkpt>
      <trkpt lat="35.216110" lon="-112.400330">
        <ele>1690.130</ele>
        <time>2018-12-29T06:10:36Z</time>
      </trkpt>
      <trkpt lat="35.215950" lon="-112.400820">
        <ele>1687.635</ele>
        <time>2018-12-29T06:10:56Z</time>
      </trkpt>
      <trkpt lat="35.215820" lon="-112.401200">
        <ele>1687.276</ele>
        <time>2018-12-29T06:11:16Z</time>
      </trkpt>
      <trkpt lat="35.215680" lon="-112.401560">
        <ele>1687.181</ele>
        <time>2018-12-29T06:11:36Z</time>
      </trkpt>
      <trkpt lat="35.215560" lon="-112.401860">
        <ele>1687.591</ele>
        <time>2018-12-29T06:11:56Z</time>
      </trkpt>
      <trkpt lat="35.215410" lon="-112.402230">
        <ele>1685.413</ele>
        <time>2018-12-29T06:12:16Z</time>
      </trkpt>
      <trkpt lat="35.215150" lon="-112.402850">
        <ele>1682.277</ele>
        <time>2018-12-29T06:12:36Z</time>
      </trkpt>
      <trkpt lat="35.214840" lon="-112.403610">
        <ele>1677.055</ele>
        <time>2018-12-29T06:12:56Z</time>
      </trkpt>
      <trkpt lat="35.214600" lon="-112.404200">
        <ele>1672.207</ele>
        <time>2018-12-29T06:13:16Z</time>
      </trkpt>
      <trkpt lat="35.214360" lon="-112.404810">
        <ele>1667.717</ele>
        <time>2018-12-29T06:13:36Z</time>
      </trkpt>
      <trkpt lat="35.214230" lon="-112.405170">
        <ele>1665.908</ele>
        <time>2018-12-29T06:13:56Z</time>
      </trkpt>
      <trkpt lat="35.214110" lon="-112.405550">
        <ele>1663.798</ele>
        <time>2018-12-29T06:14:16Z</time>
      </trkpt>
      <trkpt lat="35.213990" lon="-112.405980">
        <ele>1661.026</ele>
        <time>2018-12-29T06:14:36Z</time>
      </trkpt>
      <trkpt lat="35.213870" lon="-112.406460">
        <ele>1659.541</ele>
        <time>2018-12-29T06:14:56Z</time>
      </trkpt>
      <trkpt lat="35.213800" lon="-112.406750">
        <ele>1658.392</ele>
        <time>2018-12-29T06:15:16Z</time>
      </trkpt>
      <trkpt lat="35.213710" lon="-112.407220">
        <ele>1655.197</ele>
        <time>2018-12-29T06:15:36Z</time>
      </trkpt>
      <trkpt lat="35.213630" lon="-112.407640">
        <ele>1653.437</ele>
        <time>2018-12-29T06:15:56Z</time>
      </trkpt>
      <trkpt lat="35.213580" lon="-112.408050">
        <ele>1652.049</ele>
        <time>2018-12-29T06:16:16Z</time>
      </trkpt>
      <trkpt lat="35.213540" lon="-112.408320">
        <ele>1650.833</ele>
        <time>2018-12-29T06:16:36Z</time>
      </trkpt>
      <trkpt lat="35.213500" lon="-112.408680">
        <ele>1649.245</ele>
        <time>2018-12-29T06:16:56Z</time>
      </trkpt>
      <trkpt lat="35.213460" lon="-112.409200">
        <ele>1647.547</ele>
        <time>2018-12-29T06:17:16Z</time>
      </trkpt>
      <trkpt lat="35.213440" lon="-112.409710">
        <ele>1646.111</ele>
        <time>2018-12-29T06:17:36Z</time>
      </trkpt>
      <trkpt lat="35.213430" lon="-112.410040">
        <ele>1645.008</ele>
        <time>2018-12-29T06:17:56Z</time>
      </trkpt>
      <trkpt lat="35.213430" lon="-112.410450">
        <ele>1643.637</ele>
        <time>2018-12-29T06:18:16Z</time>
      </trkpt>
      <trkpt lat="35.213440" lon="-112.410740">
        <ele>1642.765</ele>
        <time>2018-12-29T06:18:36Z</time>
      </trkpt>
      <trkpt lat="35.213460" lon="-112.411190">
        <ele>1641.380</ele>
        <time>2018-12-29T06:18:56Z</time>
      </trkpt>
      <trkpt lat="35.213510" lon="-112.411910">
        <ele>1639.431</ele>
        <time>2018-12-29T06:19:16Z</time>
      </trkpt>
      <trkpt lat="35.213580" lon="-112.412720">
        <ele>1637.376</ele>
        <time>2018-12-29T06:19:36Z</time>
      </trkpt>
      <trkpt lat="35.213690" lon="-112.413850">
        <ele>1635.046</ele>
        <time>2018-12-29T06:19:56Z</time>
      </trkpt>
      <trkpt lat="35.213880" lon="-112.416120">
        <ele>1629.848</ele>
        <time>2018-12-29T06:20:16Z</time>
      </trkpt>
      <trkpt lat="35.214090" lon="-112.418540">
        <ele>1628.082</ele>
        <time>2018-12-29T06:20:36Z</time>
      </trkpt>
      <trkpt lat="35.214150" lon="-112.419250">
        <ele>1627.637</ele>
        <time>2018-12-29T06:20:56Z</time>
      </trkpt>
      <trkpt lat="35.214240" lon="-112.420180">
        <ele>1626.749</ele>
        <time>2018-12-29T06:21:16Z</time>
      </trkpt>
      <trkpt lat="35.214310" lon="-112.421090">
        <ele>1625.313</ele>
        <time>2018-12-29T06:21:36Z</time>
      </trkpt>
      <trkpt lat="35.214400" lon="-112.422230">
        <ele>1623.308</ele>
        <time>2018-12-29T06:21:56Z</time>
      </trkpt>
      <trkpt lat="35.214440" lon="-112.422690">
        <ele>1622.486</ele>
        <time>2018-12-29T06:22:16Z</time>
      </trkpt>
      <trkpt lat="35.214470" lon="-112.423300">
        <ele>1621.234</ele>
        <time>2018-12-29T06:22:36Z</time>
      </trkpt>
      <trkpt lat="35.214520" lon="-112.424280">
        <ele>1619.449</ele>
        <time>2018-12-29T06:22:56Z</time>
      </trkpt>
      <trkpt lat="35.214530" lon="-112.424410">
        <ele>1619.230</ele>
        <time>2018-12-29T06:23:16Z</time>
      </trkpt>
      <trkpt lat="35.214530" lon="-112.424530">
        <ele>1618.965</ele>
        <time>2018-12-29T06:23:36Z</time>
      </trkpt>
      <trkpt lat="35.214570" lon="-112.425420">
        <ele>1617.035</ele>
        <time>2018-12-29T06:23:56Z</time>
      </trkpt>
      <trkpt lat="35.214580" lon="-112.425810">
        <ele>1616.217</ele>
        <time>2018-12-29T06:24:16Z</time>
      </trkpt>
      <trkpt lat="35.214660" lon="-112.427860">
        <ele>1613.981</ele>
        <time>2018-12-29T06:24:36Z</time>
      </trkpt>
      <trkpt lat="35.214660" lon="-112.427980">
        <ele>1613.927</ele>
        <time>2018-12-29T06:24:56Z</time>
      </trkpt>
      <trkpt lat="35.214670" lon="-112.428100">
        <ele>1614.168</ele>
        <time>2018-12-29T06:25:16Z</time>
      </trkpt>
      <trkpt lat="35.214670" lon="-112.428130">
        <ele>1614.214</ele>
        <time>2018-12-29T06:25:36Z</time>
      </trkpt>
      <trkpt lat="35.214700" lon="-112.428780">
        <ele>1615.008</ele>
        <time>2018-12-29T06:25:56Z</time>
      </trkpt>
      <trkpt lat="35.214740" lon="-112.429180">
        <ele>1615.035</ele>
        <time>2018-12-29T06:26:16Z</time>
      </trkpt>
      <trkpt lat="35.214810" lon="-112.429780">
        <ele>1614.813</ele>
        <time>2018-12-29T06:26:36Z</time>
      </trkpt>
      <trkpt lat="35.214880" lon="-112.430310">
        <ele>1614.718</ele>
        <time>2018-12-29T06:26:56Z</time>
      </trkpt>
      <trkpt lat="35.214950" lon="-112.430720">
        <ele>1614.669</ele>
        <time>2018-12-29T06:27:16Z</time>
      </trkpt>
      <trkpt lat="35.214990" lon="-112.430980">
        <ele>1614.334</ele>
        <time>2018-12-29T06:27:36Z</time>
      </trkpt>
      <trkpt lat="35.215060" lon="-112.431320">
        <ele>1613.514</ele>
        <time>2018-12-29T06:27:56Z</time>
      </trkpt>
      <trkpt lat="35.215110" lon="-112.431610">
        <ele>1612.526</ele>
        <time>2018-12-29T06:28:16Z</time>
      </trkpt>
      <trkpt lat="35.215180" lon="-112.431890">
        <ele>1611.790</ele>
        <time>2018-12-29T06:28:36Z</time>
      </trkpt>
      <trkpt lat="35.215260" lon="-112.432230">
        <ele>1610.729</ele>
        <time>2018-12-29T06:28:56Z</time>
      </trkpt>
      <trkpt lat="35.215370" lon="-112.432640">
        <ele>1609.800</ele>
        <time>2018-12-29T06:29:16Z</time>
      </trkpt>
      <trkpt lat="35.215490" lon="-112.433050">
        <ele>1608.820</ele>
        <time>2018-12-29T06:29:36Z</time>
      </trkpt>
      <trkpt lat="35.215600" lon="-112.433430">
        <ele>1608.008</ele>
        <time>2018-12-29T06:29:56Z</time>
      </trkpt>
      <trkpt lat="35.215870" lon="-112.434300">
        <ele>1606.215</ele>
        <time>2018-12-29T06:30:16Z</time>
      </trkpt>
      <trkpt lat="35.216250" lon="-112.435570">
        <ele>1604.243</ele>
        <time>2018-12-29T06:30:36Z</time>
      </trkpt>
      <trkpt lat="35.216390" lon="-112.436010">
        <ele>1603.648</ele>
        <time>2018-12-29T06:30:56Z</time>
      </trkpt>
      <trkpt lat="35.216440" lon="-112.436210">
        <ele>1603.329</ele>
        <time>2018-12-29T06:31:16Z</time>
      </trkpt>
      <trkpt lat="35.217020" lon="-112.438090">
        <ele>1601.694</ele>
        <time>2018-12-29T06:31:36Z</time>
      </trkpt>
      <trkpt lat="35.217390" lon="-112.439370">
        <ele>1600.264</ele>
        <time>2018-12-29T06:31:56Z</time>
      </trkpt>
      <trkpt lat="35.217490" lon="-112.439650">
        <ele>1599.886</ele>
        <time>2018-12-29T06:32:16Z</time>
      </trkpt>
      <trkpt lat="35.218030" lon="-112.441440">
        <ele>1597.670</ele>
        <time>2018-12-29T06:32:36Z</time>
      </trkpt>
      <trkpt lat="35.218070" lon="-112.441570">
        <ele>1597.492</ele>
        <time>2018-12-29T06:32:56Z</time>
      </trkpt>
      <trkpt lat="35.218210" lon="-112.442030">
        <ele>1596.973</ele>
        <time>2018-12-29T06:33:16Z</time>
      </trkpt>
      <trkpt lat="35.218360" lon="-112.442580">
        <ele>1596.920</ele>
        <time>2018-12-29T06:33:36Z</time>
      </trkpt>
      <trkpt lat="35.218520" lon="-112.443180">
        <ele>1597.108</ele>
        <time>2018-12-29T06:33:56Z</time>
      </trkpt>
      <trkpt lat="35.218640" lon="-112.443650">
        <ele>1597.282</ele>
        <time>2018-12-29T06:34:16Z</time>
      </trkpt>
      <trkpt lat="35.218760" lon="-112.444110">
        <ele>1597.420</ele>
        <time>2018-12-29T06:34:36Z</time>
      </trkpt>
      <trkpt lat="35.218920" lon="-112.444840">
        <ele>1598.145</ele>
        <time>2018-12-29T06:34:56Z</time>
      </trkpt>
      <trkpt lat="35.219020" lon="-112.445270">
        <ele>1597.876</ele>
        <time>2018-12-29T06:35:16Z</time>
      </trkpt>
      <trkpt lat="35.219160" lon="-112.445950">
        <ele>1597.921</ele>
        <time>2018-12-29T06:35:36Z</time>
      </trkpt>
      <trkpt lat="35.219260" lon="-112.446460">
        <ele>1597.281</ele>
        <time>2018-12-29T06:35:56Z</time>
      </trkpt>
      <trkpt lat="35.219330" lon="-112.446860">
        <ele>1596.723</ele>
        <time>2018-12-29T06:36:16Z</time>
      </trkpt>
      <trkpt lat="35.219400" lon="-112.447240">
        <ele>1596.017</ele>
        <time>2018-12-29T06:36:36Z</time>
      </trkpt>
      <trkpt lat="35.219480" lon="-112.447730">
        <ele>1595.165</ele>
        <time>2018-12-29T06:36:56Z</time>
      </trkpt>
      <trkpt lat="35.219540" lon="-112.448170">
        <ele>1593.768</ele>
        <time>2018-12-29T06:37:16Z</time>
      </trkpt>
      <trkpt lat="35.219630" lon="-112.448750">
        <ele>1592.414</ele>
        <time>2018-12-29T06:37:36Z</time>
      </trkpt>
      <trkpt lat="35.219680" lon="-112.449150">
        <ele>1591.708</ele>
        <time>2018-12-29T06:37:56Z</time>
      </trkpt>
      <trkpt lat="35.219760" lon="-112.449880">
        <ele>1591.279</ele>
        <time>2018-12-29T06:38:16Z</time>
      </trkpt>
      <trkpt lat="35.219810" lon="-112.450330">
        <ele>1591.057</ele>
        <time>2018-12-29T06:38:36Z</time>
      </trkpt>
      <trkpt lat="35.219880" lon="-112.451090">
        <ele>1591.212</ele>
        <time>2018-12-29T06:38:56Z</time>
      </trkpt>
      <trkpt lat="35.219920" lon="-112.451600">
        <ele>1591.223</ele>
        <time>2018-12-29T06:39:16Z</time>
      </trkpt>
      <trkpt lat="35.219940" lon="-112.451980">
        <ele>1591.058</ele>
        <time>2018-12-29T06:39:36Z</time>
      </trkpt>
      <trkpt lat="35.219960" lon="-112.452320">
        <ele>1590.988</ele>
        <time>2018-12-29T06:39:56Z</time>
      </trkpt>
      <trkpt lat="35.219990" lon="-112.452760">
        <ele>1591.120</ele>
        <time>2018-12-29T06:40:16Z</time>
      </trkpt>
      <trkpt lat="35.220000" lon="-112.453110">
        <ele>1591.294</ele>
        <time>2018-12-29T06:40:36Z</time>
      </trkpt>
      <trkpt lat="35.220020" lon="-112.453670">
        <ele>1591.362</ele>
        <time>2018-12-29T06:40:56Z</time>
      </trkpt>
      <trkpt lat="35.220060" lon="-112.454550">
        <ele>1593.683</ele>
        <time>2018-12-29T06:41:16Z</time>
      </trkpt>
      <trkpt lat="35.220090" lon="-112.455540">
        <ele>1598.811</ele>
        <time>2018-12-29T06:41:36Z</time>
      </trkpt>
      <trkpt lat="35.220120" lon="-112.456270">
        <ele>1600.908</ele>
        <time>2018-12-29T06:41:56Z</time>
      </trkpt>
      <trkpt lat="35.220140" lon="-112.456880">
        <ele>1603.659</ele>
        <time>2018-12-29T06:42:16Z</time>
      </trkpt>
      <trkpt lat="35.220160" lon="-112.457310">
        <ele>1605.237</ele>
        <time>2018-12-29T06:42:36Z</time>
      </trkpt>
      <trkpt lat="35.220190" lon="-112.457710">
        <ele>1606.682</ele>
        <time>2018-12-29T06:42:56Z</time>
      </trkpt>
      <trkpt lat="35.220210" lon="-112.458030">
        <ele>1607.433</ele>
        <time>2018-12-29T06:43:16Z</time>
      </trkpt>
      <trkpt lat="35.220230" lon="-112.458370">
        <ele>1607.768</ele>
        <time>2018-12-29T06:43:36Z</time>
      </trkpt>
      <trkpt lat="35.220280" lon="-112.459030">
        <ele>1603.678</ele>
        <time>2018-12-29T06:43:56Z</time>
      </trkpt>
      <trkpt lat="35.220350" lon="-112.459720">
        <ele>1601.640</ele>
        <time>2018-12-29T06:44:16Z</time>
      </trkpt>
      <trkpt lat="35.220390" lon="-112.460110">
        <ele>1599.854</ele>
        <time>2018-12-29T06:44:36Z</time>
      </trkpt>
      <trkpt lat="35.220440" lon="-112.460500">
        <ele>1597.473</ele>
        <time>2018-12-29T06:44:56Z</time>
      </trkpt>
      <trkpt lat="35.220500" lon="-112.461050">
        <ele>1596.285</ele>
        <time>2018-12-29T06:45:16Z</time>
      </trkpt>
      <trkpt lat="35.220630" lon="-112.461940">
        <ele>1591.413</ele>
        <time>2018-12-29T06:45:36Z</time>
      </trkpt>
      <trkpt lat="35.220760" lon="-112.462760">
        <ele>1587.308</ele>
        <time>2018-12-29T06:45:56Z</time>
      </trkpt>
      <trkpt lat="35.220850" lon="-112.463250">
        <ele>1586.240</ele>
        <time>2018-12-29T06:46:16Z</time>
      </trkpt>
      <trkpt lat="35.220910" lon="-112.463560">
        <ele>1585.488</ele>
        <time>2018-12-29T06:46:36Z</time>
      </trkpt>
      <trkpt lat="35.220950" lon="-112.463790">
        <ele>1584.733</ele>
        <time>2018-12-29T06:46:56Z</time>
      </trkpt>
      <trkpt lat="35.221030" lon="-112.464200">
        <ele>1583.524</ele>
        <time>2018-12-29T06:47:16Z</time>
      </trkpt>
      <trkpt lat="35.221100" lon="-112.464540">
        <ele>1583.219</ele>
        <time>2018-12-29T06:47:36Z</time>
      </trkpt>
      <trkpt lat="35.221440" lon="-112.466310">
        <ele>1583.389</ele>
        <time>2018-12-29T06:47:56Z</time>
      </trkpt>
      <trkpt lat="35.221520" lon="-112.466710">
        <ele>1582.431</ele>
        <time>2018-12-29T06:48:16Z</time>
      </trkpt>
      <trkpt lat="35.221580" lon="-112.467100">
        <ele>1581.725</ele>
        <time>2018-12-29T06:48:36Z</time>
      </trkpt>
      <trkpt lat="35.221640" lon="-112.467490">
        <ele>1580.169</ele>
        <time>2018-12-29T06:48:56Z</time>
      </trkpt>
      <trkpt lat="35.221670" lon="-112.467760">
        <ele>1579.304</ele>
        <time>2018-12-29T06:49:16Z</time>
      </trkpt>
      <trkpt lat="35.221700" lon="-112.468020">
        <ele>1579.024</ele>
        <time>2018-12-29T06:49:36Z</time>
      </trkpt>
      <trkpt lat="35.221730" lon="-112.468290">
        <ele>1579.008</ele>
        <time>2018-12-29T06:49:56Z</time>
      </trkpt>
      <trkpt lat="35.221760" lon="-112.468700">
        <ele>1578.949</ele>
        <time>2018-12-29T06:50:16Z</time>
      </trkpt>
      <trkpt lat="35.221780" lon="-112.468950">
        <ele>1579.657</ele>
        <time>2018-12-29T06:50:36Z</time>
      </trkpt>
      <trkpt lat="35.221790" lon="-112.469330">
        <ele>1580.372</ele>
        <time>2018-12-29T06:50:56Z</time>
      </trkpt>
      <trkpt lat="35.221800" lon="-112.469510">
        <ele>1579.893</ele>
        <time>2018-12-29T06:51:16Z</time>
      </trkpt>
      <trkpt lat="35.221800" lon="-112.469740">
        <ele>1579.218</ele>
        <time>2018-12-29T06:51:36Z</time>
      </trkpt>
      <trkpt lat="35.221800" lon="-112.470190">
        <ele>1579.248</ele>
        <time>2018-12-29T06:51:56Z</time>
      </trkpt>
      <trkpt lat="35.221780" lon="-112.470880">
        <ele>1578.970</ele>
        <time>2018-12-29T06:52:16Z</time>
      </trkpt>
      <trkpt lat="35.221760" lon="-112.471160">
        <ele>1577.644</ele>
        <time>2018-12-29T06:52:36Z</time>
      </trkpt>
      <trkpt lat="35.221750" lon="-112.471410">
        <ele>1576.361</ele>
        <time>2018-12-29T06:52:56Z</time>
      </trkpt>
      <trkpt lat="35.221700" lon="-112.471930">
        <ele>1572.721</ele>
        <time>2018-12-29T06:53:16Z</time>
      </trkpt>
      <trkpt lat="35.221640" lon="-112.472420">
        <ele>1569.113</ele>
        <time>2018-12-29T06:53:36Z</time>
      </trkpt>
      <trkpt lat="35.221560" lon="-112.472930">
        <ele>1566.508</ele>
        <time>2018-12-29T06:53:56Z</time>
      </trkpt>
      <trkpt lat="35.221520" lon="-112.473210">
        <ele>1565.019</ele>
        <time>2018-12-29T06:54:16Z</time>
      </trkpt>
      <trkpt lat="35.221460" lon="-112.473530">
        <ele>1563.157</ele>
        <time>2018-12-29T06:54:36Z</time>
      </trkpt>
      <trkpt lat="35.221390" lon="-112.473850">
        <ele>1561.632</ele>
        <time>2018-12-29T06:54:56Z</time>
      </trkpt>
      <trkpt lat="35.221320" lon="-112.474170">
        <ele>1560.973</ele>
        <time>2018-12-29T06:55:16Z</time>
      </trkpt>
      <trkpt lat="35.221310" lon="-112.474210">
        <ele>1560.958</ele>
        <time>2018-12-29T06:55:36Z</time>
      </trkpt>
      <trkpt lat="35.221250" lon="-112.474450">
        <ele>1560.618</ele>
        <time>2018-12-29T06:55:56Z</time>
      </trkpt>
      <trkpt lat="35.221230" lon="-112.474540">
        <ele>1560.510</ele>
        <time>2018-12-29T06:56:16Z</time>
      </trkpt>
      <trkpt lat="35.221190" lon="-112.474680">
        <ele>1560.374</ele>
        <time>2018-12-29T06:56:36Z</time>
      </trkpt>
      <trkpt lat="35.221150" lon="-112.474850">
        <ele>1560.158</ele>
        <time>2018-12-29T06:56:56Z</time>
      </trkpt>
      <trkpt lat="35.221070" lon="-112.475120">
        <ele>1559.852</ele>
        <time>2018-12-29T06:57:16Z</time>
      </trkpt>
      <trkpt lat="35.220920" lon="-112.475630">
        <ele>1559.317</ele>
        <time>2018-12-29T06:57:36Z</time>
      </trkpt>
      <trkpt lat="35.220840" lon="-112.475920">
        <ele>1559.008</ele>
        <time>2018-12-29T06:57:56Z</time>
      </trkpt>
      <trkpt lat="35.220760" lon="-112.476210">
        <ele>1558.858</ele>
        <time>2018-12-29T06:58:16Z</time>
      </trkpt>
      <trkpt lat="35.220480" lon="-112.477120">
        <ele>1559.916</ele>
        <time>2018-12-29T06:58:36Z</time>
      </trkpt>
      <trkpt lat="35.220340" lon="-112.477630">
        <ele>1560.631</ele>
        <time>2018-12-29T06:58:56Z</time>
      </trkpt>
      <trkpt lat="35.220220" lon="-112.478110">
        <ele>1561.322</ele>
        <time>2018-12-29T06:59:16Z</time>
      </trkpt>
      <trkpt lat="35.220090" lon="-112.478650">
        <ele>1563.887</ele>
        <time>2018-12-29T06:59:36Z</time>
      </trkpt>
      <trkpt lat="35.220000" lon="-112.479000">
        <ele>1566.197</ele>
        <time>2018-12-29T06:59:56Z</time>
      </trkpt>
      <trkpt lat="35.219950" lon="-112.479210">
        <ele>1567.179</ele>
        <time>2018-12-29T07:00:16Z</time>
      </trkpt>
      <trkpt lat="35.219880" lon="-112.479590">
        <ele>1568.513</ele>
        <time>2018-12-29T07:00:36Z</time>
      </trkpt>
      <trkpt lat="35.219790" lon="-112.480010">
        <ele>1570.987</ele>
        <time>2018-12-29T07:00:56Z</time>
      </trkpt>
      <trkpt lat="35.219740" lon="-112.480290">
        <ele>1572.742</ele>
        <time>2018-12-29T07:01:16Z</time>
      </trkpt>
      <trkpt lat="35.219660" lon="-112.480740">
        <ele>1574.526</ele>
        <time>2018-12-29T07:01:36Z</time>
      </trkpt>
      <trkpt lat="35.219590" lon="-112.481150">
        <ele>1576.008</ele>
        <time>2018-12-29T07:01:56Z</time>
      </trkpt>
      <trkpt lat="35.219580" lon="-112.481250">
        <ele>1576.451</ele>
        <time>2018-12-29T07:02:16Z</time>
      </trkpt>
      <trkpt lat="35.219540" lon="-112.481520">
        <ele>1578.029</ele>
        <time>2018-12-29T07:02:36Z</time>
      </trkpt>
      <trkpt lat="35.219500" lon="-112.481770">
        <ele>1579.484</ele>
        <time>2018-12-29T07:02:56Z</time>
      </trkpt>
      <trkpt lat="35.219500" lon="-112.481780">
        <ele>1579.515</ele>
        <time>2018-12-29T07:03:16Z</time>
      </trkpt>
      <trkpt lat="35.219440" lon="-112.482190">
        <ele>1581.590</ele>
        <time>2018-12-29T07:03:36Z</time>
      </trkpt>
      <trkpt lat="35.219360" lon="-112.482980">
        <ele>1585.890</ele>
        <time>2018-12-29T07:03:56Z</time>
      </trkpt>
      <trkpt lat="35.219320" lon="-112.483370">
        <ele>1587.532</ele>
        <time>2018-12-29T07:04:16Z</time>
      </trkpt>
      <trkpt lat="35.219300" lon="-112.483620">
        <ele>1588.496</ele>
        <time>2018-12-29T07:04:36Z</time>
      </trkpt>
      <trkpt lat="35.219280" lon="-112.483920">
        <ele>1588.245</ele>
        <time>2018-12-29T07:04:56Z</time>
      </trkpt>
      <trkpt lat="35.219220" lon="-112.484710">
        <ele>1585.347</ele>
        <time>2018-12-29T07:05:16Z</time>
      </trkpt>
      <trkpt lat="35.219200" lon="-112.485160">
        <ele>1583.011</ele>
        <time>2018-12-29T07:05:36Z</time>
      </trkpt>
      <trkpt lat="35.219190" lon="-112.485610">
        <ele>1579.908</ele>
        <time>2018-12-29T07:05:56Z</time>
      </trkpt>
      <trkpt lat="35.219180" lon="-112.486190">
        <ele>1577.857</ele>
        <time>2018-12-29T07:06:16Z</time>
      </trkpt>
      <trkpt lat="35.219170" lon="-112.486570">
        <ele>1575.425</ele>
        <time>2018-12-29T07:06:36Z</time>
      </trkpt>
      <trkpt lat="35.219180" lon="-112.487220">
        <ele>1572.870</ele>
        <time>2018-12-29T07:06:56Z</time>
      </trkpt>
      <trkpt lat="35.219190" lon="-112.487680">
        <ele>1572.251</ele>
        <time>2018-12-29T07:07:16Z</time>
      </trkpt>
      <trkpt lat="35.219210" lon="-112.488090">
        <ele>1572.046</ele>
        <time>2018-12-29T07:07:36Z</time>
      </trkpt>
      <trkpt lat="35.219230" lon="-112.488470">
        <ele>1572.346</ele>
        <time>2018-12-29T07:07:56Z</time>
      </trkpt>
      <trkpt lat="35.219250" lon="-112.488820">
        <ele>1572.258</ele>
        <time>2018-12-29T07:08:16Z</time>
      </trkpt>
      <trkpt lat="35.219290" lon="-112.489360">
        <ele>1571.632</ele>
        <time>2018-12-29T07:08:36Z</time>
      </trkpt>
      <trkpt lat="35.219330" lon="-112.489850">
        <ele>1570.896</ele>
        <time>2018-12-29T07:08:56Z</time>
      </trkpt>
      <trkpt lat="35.219360" lon="-112.490090">
        <ele>1570.531</ele>
        <time>2018-12-29T07:09:16Z</time>
      </trkpt>
      <trkpt lat="35.219440" lon="-112.490780">
        <ele>1570.324</ele>
        <time>2018-12-29T07:09:36Z</time>
      </trkpt>
      <trkpt lat="35.219490" lon="-112.491180">
        <ele>1570.308</ele>
        <time>2018-12-29T07:09:56Z</time>
      </trkpt>
      <trkpt lat="35.219550" lon="-112.491610">
        <ele>1568.772</ele>
        <time>2018-12-29T07:10:16Z</time>
      </trkpt>
      <trkpt lat="35.219600" lon="-112.491970">
        <ele>1568.130</ele>
        <time>2018-12-29T07:10:36Z</time>
      </trkpt>
      <trkpt lat="35.219630" lon="-112.492100">
        <ele>1568.035</ele>
        <time>2018-12-29T07:10:56Z</time>
      </trkpt>
      <trkpt lat="35.219700" lon="-112.492510">
        <ele>1567.216</ele>
        <time>2018-12-29T07:11:16Z</time>
      </trkpt>
      <trkpt lat="35.219810" lon="-112.493090">
        <ele>1564.741</ele>
        <time>2018-12-29T07:11:36Z</time>
      </trkpt>
      <trkpt lat="35.220050" lon="-112.494370">
        <ele>1560.351</ele>
        <time>2018-12-29T07:11:56Z</time>
      </trkpt>
      <trkpt lat="35.220180" lon="-112.495080">
        <ele>1559.073</ele>
        <time>2018-12-29T07:12:16Z</time>
      </trkpt>
      <trkpt lat="35.220230" lon="-112.495410">
        <ele>1558.747</ele>
        <time>2018-12-29T07:12:36Z</time>
      </trkpt>
      <trkpt lat="35.220290" lon="-112.495770">
        <ele>1558.497</ele>
        <time>2018-12-29T07:12:56Z</time>
      </trkpt>
      <trkpt lat="35.220410" lon="-112.496550">
        <ele>1558.823</ele>
        <time>2018-12-29T07:13:16Z</time>
      </trkpt>
      <trkpt lat="35.220450" lon="-112.496840">
        <ele>1559.725</ele>
        <time>2018-12-29T07:13:36Z</time>
      </trkpt>
      <trkpt lat="35.220490" lon="-112.497160">
        <ele>1561.108</ele>
        <time>2018-12-29T07:13:56Z</time>
      </trkpt>
      <trkpt lat="35.220560" lon="-112.497660">
        <ele>1564.222</ele>
        <time>2018-12-29T07:14:16Z</time>
      </trkpt>
      <trkpt lat="35.220620" lon="-112.498260">
        <ele>1567.410</ele>
        <time>2018-12-29T07:14:36Z</time>
      </trkpt>
      <trkpt lat="35.220660" lon="-112.498620">
        <ele>1568.865</ele>
        <time>2018-12-29T07:14:56Z</time>
      </trkpt>
      <trkpt lat="35.220720" lon="-112.499300">
        <ele>1570.546</ele>
        <time>2018-12-29T07:15:16Z</time>
      </trkpt>
      <trkpt lat="35.220790" lon="-112.500240">
        <ele>1568.151</ele>
        <time>2018-12-29T07:15:36Z</time>
      </trkpt>
      <trkpt lat="35.220820" lon="-112.500780">
        <ele>1564.251</ele>
        <time>2018-12-29T07:15:56Z</time>
      </trkpt>
      <trkpt lat="35.220840" lon="-112.501310">
        <ele>1562.763</ele>
        <time>2018-12-29T07:16:16Z</time>
      </trkpt>
      <trkpt lat="35.220870" lon="-112.501980">
        <ele>1565.257</ele>
        <time>2018-12-29T07:16:36Z</time>
      </trkpt>
      <trkpt lat="35.220890" lon="-112.502790">
        <ele>1566.856</ele>
        <time>2018-12-29T07:16:56Z</time>
      </trkpt>
      <trkpt lat="35.220910" lon="-112.503610">
        <ele>1566.959</ele>
        <time>2018-12-29T07:17:16Z</time>
      </trkpt>
      <trkpt lat="35.220920" lon="-112.504030">
        <ele>1566.714</ele>
        <time>2018-12-29T07:17:36Z</time>
      </trkpt>
      <trkpt lat="35.220950" lon="-112.505090">
        <ele>1564.708</ele>
        <time>2018-12-29T07:17:56Z</time>
      </trkpt>
      <trkpt lat="35.221030" lon="-112.507830">
        <ele>1561.428</ele>
        <time>2018-12-29T07:18:16Z</time>
      </trkpt>
      <trkpt lat="35.221040" lon="-112.508130">
        <ele>1561.146</ele>
        <time>2018-12-29T07:18:36Z</time>
      </trkpt>
      <trkpt lat="35.221040" lon="-112.508350">
        <ele>1561.371</ele>
        <time>2018-12-29T07:18:56Z</time>
      </trkpt>
      <trkpt lat="35.221050" lon="-112.508700">
        <ele>1561.792</ele>
        <time>2018-12-29T07:19:16Z</time>
      </trkpt>
      <trkpt lat="35.221080" lon="-112.509720">
        <ele>1560.547</ele>
        <time>2018-12-29T07:19:36Z</time>
      </trkpt>
      <trkpt lat="35.221090" lon="-112.510250">
        <ele>1557.287</ele>
        <time>2018-12-29T07:19:56Z</time>
      </trkpt>
      <trkpt lat="35.221100" lon="-112.510910">
        <ele>1555.439</ele>
        <time>2018-12-29T07:20:16Z</time>
      </trkpt>
      <trkpt lat="35.221110" lon="-112.512450">
        <ele>1549.473</ele>
        <time>2018-12-29T07:20:36Z</time>
      </trkpt>
      <trkpt lat="35.221110" lon="-112.514840">
        <ele>1543.227</ele>
        <time>2018-12-29T07:20:56Z</time>
      </trkpt>
      <trkpt lat="35.221120" lon="-112.522660">
        <ele>1538.068</ele>
        <time>2018-12-29T07:21:16Z</time>
      </trkpt>
      <trkpt lat="35.221130" lon="-112.526990">
        <ele>1534.814</ele>
        <time>2018-12-29T07:21:36Z</time>
      </trkpt>
      <trkpt lat="35.221130" lon="-112.529180">
        <ele>1536.108</ele>
        <time>2018-12-29T07:21:56Z</time>
      </trkpt>
      <trkpt lat="35.221140" lon="-112.536570">
        <ele>1538.635</ele>
        <time>2018-12-29T07:22:16Z</time>
      </trkpt>
      <trkpt lat="35.221150" lon="-112.537980">
        <ele>1532.853</ele>
        <time>2018-12-29T07:22:36Z</time>
      </trkpt>
      <trkpt lat="35.221160" lon="-112.539180">
        <ele>1530.958</ele>
        <time>2018-12-29T07:22:56Z</time>
      </trkpt>
      <trkpt lat="35.221160" lon="-112.539440">
        <ele>1530.869</ele>
        <time>2018-12-29T07:23:16Z</time>
      </trkpt>
      <trkpt lat="35.221150" lon="-112.539690">
        <ele>1531.454</ele>
        <time>2018-12-29T07:23:36Z</time>
      </trkpt>
      <trkpt lat="35.221150" lon="-112.539830">
        <ele>1532.154</ele>
        <time>2018-12-29T07:23:56Z</time>
      </trkpt>
      <trkpt lat="35.221160" lon="-112.540430">
        <ele>1534.636</ele>
        <time>2018-12-29T07:24:16Z</time>
      </trkpt>
      <trkpt lat="35.221160" lon="-112.540890">
        <ele>1535.340</ele>
        <time>2018-12-29T07:24:36Z</time>
      </trkpt>
      <trkpt lat="35.221170" lon="-112.541410">
        <ele>1537.047</ele>
        <time>2018-12-29T07:24:56Z</time>
      </trkpt>
      <trkpt lat="35.221170" lon="-112.541720">
        <ele>1537.729</ele>
        <time>2018-12-29T07:25:16Z</time>
      </trkpt>
      <trkpt lat="35.221190" lon="-112.542070">
        <ele>1538.921</ele>
        <time>2018-12-29T07:25:36Z</time>
      </trkpt>
      <trkpt lat="35.221210" lon="-112.542310">
        <ele>1539.708</ele>
        <time>2018-12-29T07:25:56Z</time>
      </trkpt>
      <trkpt lat="35.221230" lon="-112.542600">
        <ele>1540.867</ele>
        <time>2018-12-29T07:26:16Z</time>
      </trkpt>
      <trkpt lat="35.221260" lon="-112.542810">
        <ele>1541.325</ele>
        <time>2018-12-29T07:26:36Z</time>
      </trkpt>
      <trkpt lat="35.221280" lon="-112.543020">
        <ele>1541.620</ele>
        <time>2018-12-29T07:26:56Z</time>
      </trkpt>
      <trkpt lat="35.221310" lon="-112.543260">
        <ele>1541.931</ele>
        <time>2018-12-29T07:27:16Z</time>
      </trkpt>
      <trkpt lat="35.221330" lon="-112.543400">
        <ele>1542.126</ele>
        <time>2018-12-29T07:27:36Z</time>
      </trkpt>
      <trkpt lat="35.221350" lon="-112.543530">
        <ele>1542.346</ele>
        <time>2018-12-29T07:27:56Z</time>
      </trkpt>
      <trkpt lat="35.221400" lon="-112.543800">
        <ele>1542.848</ele>
        <time>2018-12-29T07:28:16Z</time>
      </trkpt>
      <trkpt lat="35.221440" lon="-112.544060">
        <ele>1543.272</ele>
        <time>2018-12-29T07:28:36Z</time>
      </trkpt>
      <trkpt lat="35.221500" lon="-112.544330">
        <ele>1543.278</ele>
        <time>2018-12-29T07:28:56Z</time>
      </trkpt>
      <trkpt lat="35.221830" lon="-112.546020">
        <ele>1544.533</ele>
        <time>2018-12-29T07:29:16Z</time>
      </trkpt>
      <trkpt lat="35.222190" lon="-112.547840">
        <ele>1546.326</ele>
        <time>2018-12-29T07:29:36Z</time>
      </trkpt>
      <trkpt lat="35.222880" lon="-112.551330">
        <ele>1546.808</ele>
        <time>2018-12-29T07:29:56Z</time>
      </trkpt>
      <trkpt lat="35.223090" lon="-112.552390">
        <ele>1546.920</ele>
        <time>2018-12-29T07:30:16Z</time>
      </trkpt>
      <trkpt lat="35.223300" lon="-112.553440">
        <ele>1547.318</ele>
        <time>2018-12-29T07:30:36Z</time>
      </trkpt>
      <trkpt lat="35.223460" lon="-112.554220">
        <ele>1547.993</ele>
        <time>2018-12-29T07:30:56Z</time>
      </trkpt>
      <trkpt lat="35.223610" lon="-112.555010">
        <ele>1548.264</ele>
        <time>2018-12-29T07:31:16Z</time>
      </trkpt>
      <trkpt lat="35.223940" lon="-112.556670">
        <ele>1548.359</ele>
        <time>2018-12-29T07:31:36Z</time>
      </trkpt>
      <trkpt lat="35.224560" lon="-112.559830">
        <ele>1546.489</ele>
        <time>2018-12-29T07:31:56Z</time>
      </trkpt>
      <trkpt lat="35.225820" lon="-112.566190">
        <ele>1544.271</ele>
        <time>2018-12-29T07:32:16Z</time>
      </trkpt>
      <trkpt lat="35.225970" lon="-112.566960">
        <ele>1543.795</ele>
        <time>2018-12-29T07:32:36Z</time>
      </trkpt>
      <trkpt lat="35.226100" lon="-112.567610">
        <ele>1543.246</ele>
        <time>2018-12-29T07:32:56Z</time>
      </trkpt>
      <trkpt lat="35.226280" lon="-112.568500">
        <ele>1543.888</ele>
        <time>2018-12-29T07:33:16Z</time>
      </trkpt>
      <trkpt lat="35.226380" lon="-112.569020">
        <ele>1544.616</ele>
        <time>2018-12-29T07:33:36Z</time>
      </trkpt>
      <trkpt lat="35.226570" lon="-112.569980">
        <ele>1546.808</ele>
        <time>2018-12-29T07:33:56Z</time>
      </trkpt>
      <trkpt lat="35.226770" lon="-112.571000">
        <ele>1548.287</ele>
        <time>2018-12-29T07:34:16Z</time>
      </trkpt>
      <trkpt lat="35.227130" lon="-112.572810">
        <ele>1549.045</ele>
        <time>2018-12-29T07:34:36Z</time>
      </trkpt>
      <trkpt lat="35.227260" lon="-112.573490">
        <ele>1548.540</ele>
        <time>2018-12-29T07:34:56Z</time>
      </trkpt>
      <trkpt lat="35.227420" lon="-112.574270">
        <ele>1547.971</ele>
        <time>2018-12-29T07:35:16Z</time>
      </trkpt>
      <trkpt lat="35.227670" lon="-112.575570">
        <ele>1547.016</ele>
        <time>2018-12-29T07:35:36Z</time>
      </trkpt>
      <trkpt lat="35.227900" lon="-112.576740">
        <ele>1546.586</ele>
        <time>2018-12-29T07:35:56Z</time>
      </trkpt>
      <trkpt lat="35.228160" lon="-112.578060">
        <ele>1545.518</ele>
        <time>2018-12-29T07:36:16Z</time>
      </trkpt>
      <trkpt lat="35.228690" lon="-112.580730">
        <ele>1543.292</ele>
        <time>2018-12-29T07:36:36Z</time>
      </trkpt>
      <trkpt lat="35.228800" lon="-112.581280">
        <ele>1543.228</ele>
        <time>2018-12-29T07:36:56Z</time>
      </trkpt>
      <trkpt lat="35.228930" lon="-112.581930">
        <ele>1543.489</ele>
        <time>2018-12-29T07:37:16Z</time>
      </trkpt>
      <trkpt lat="35.228980" lon="-112.582190">
        <ele>1543.717</ele>
        <time>2018-12-29T07:37:36Z</time>
      </trkpt>
      <trkpt lat="35.229040" lon="-112.582480">
        <ele>1543.608</ele>
        <time>2018-12-29T07:37:56Z</time>
      </trkpt>
      <trkpt lat="35.229120" lon="-112.582860">
        <ele>1543.745</ele>
        <time>2018-12-29T07:38:16Z</time>
      </trkpt>
      <trkpt lat="35.229240" lon="-112.583490">
        <ele>1543.893</ele>
        <time>2018-12-29T07:38:36Z</time>
      </trkpt>
      <trkpt lat="35.229360" lon="-112.584140">
        <ele>1543.738</ele>
        <time>2018-12-29T07:38:56Z</time>
      </trkpt>
      <trkpt lat="35.229490" lon="-112.584780">
        <ele>1544.449</ele>
        <time>2018-12-29T07:39:16Z</time>
      </trkpt>
      <trkpt lat="35.229630" lon="-112.585470">
        <ele>1544.744</ele>
        <time>2018-12-29T07:39:36Z</time>
      </trkpt>
      <trkpt lat="35.229750" lon="-112.586120">
        <ele>1543.094</ele>
        <time>2018-12-29T07:39:56Z</time>
      </trkpt>
      <trkpt lat="35.229860" lon="-112.586640">
        <ele>1542.656</ele>
        <time>2018-12-29T07:40:16Z</time>
      </trkpt>
      <trkpt lat="35.229960" lon="-112.587170">
        <ele>1542.750</ele>
        <time>2018-12-29T07:40:36Z</time>
      </trkpt>
      <trkpt lat="35.230030" lon="-112.587550">
        <ele>1542.145</ele>
        <time>2018-12-29T07:40:56Z</time>
      </trkpt>
      <trkpt lat="35.230100" lon="-112.587940">
        <ele>1540.647</ele>
        <time>2018-12-29T07:41:16Z</time>
      </trkpt>
      <trkpt lat="35.230190" lon="-112.588470">
        <ele>1539.211</ele>
        <time>2018-12-29T07:41:36Z</time>
      </trkpt>
      <trkpt lat="35.230280" lon="-112.588990">
        <ele>1538.808</ele>
        <time>2018-12-29T07:41:56Z</time>
      </trkpt>
      <trkpt lat="35.230330" lon="-112.589270">
        <ele>1538.657</ele>
        <time>2018-12-29T07:42:16Z</time>
      </trkpt>
      <trkpt lat="35.230390" lon="-112.589650">
        <ele>1538.275</ele>
        <time>2018-12-29T07:42:36Z</time>
      </trkpt>
      <trkpt lat="35.230470" lon="-112.590180">
        <ele>1537.270</ele>
        <time>2018-12-29T07:42:56Z</time>
      </trkpt>
      <trkpt lat="35.230560" lon="-112.590790">
        <ele>1537.171</ele>
        <time>2018-12-29T07:43:16Z</time>
      </trkpt>
      <trkpt lat="35.230610" lon="-112.591150">
        <ele>1537.196</ele>
        <time>2018-12-29T07:43:36Z</time>
      </trkpt>
      <trkpt lat="35.230660" lon="-112.591530">
        <ele>1536.546</ele>
        <time>2018-12-29T07:43:56Z</time>
      </trkpt>
      <trkpt lat="35.230720" lon="-112.591930">
        <ele>1535.318</ele>
        <time>2018-12-29T07:44:16Z</time>
      </trkpt>
      <trkpt lat="35.230790" lon="-112.592450">
        <ele>1534.112</ele>
        <time>2018-12-29T07:44:36Z</time>
      </trkpt>
      <trkpt lat="35.230860" lon="-112.593130">
        <ele>1532.233</ele>
        <time>2018-12-29T07:44:56Z</time>
      </trkpt>
      <trkpt lat="35.230970" lon="-112.594060">
        <ele>1531.223</ele>
        <time>2018-12-29T07:45:16Z</time>
      </trkpt>
      <trkpt lat="35.231080" lon="-112.595010">
        <ele>1531.615</ele>
        <time>2018-12-29T07:45:36Z</time>
      </trkpt>
      <trkpt lat="35.231180" lon="-112.595780">
        <ele>1536.908</ele>
        <time>2018-12-29T07:45:56Z</time>
      </trkpt>
      <trkpt lat="35.231290" lon="-112.596730">
        <ele>1537.526</ele>
        <time>2018-12-29T07:46:16Z</time>
      </trkpt>
      <trkpt lat="35.231420" lon="-112.597870">
        <ele>1542.824</ele>
        <time>2018-12-29T07:46:36Z</time>
      </trkpt>
      <trkpt lat="35.231550" lon="-112.598930">
        <ele>1544.529</ele>
        <time>2018-12-29T07:46:56Z</time>
      </trkpt>
      <trkpt lat="35.231670" lon="-112.600060">
        <ele>1540.430</ele>
        <time>2018-12-29T07:47:16Z</time>
      </trkpt>
      <trkpt lat="35.231810" lon="-112.601300">
        <ele>1540.155</ele>
        <time>2018-12-29T07:47:36Z</time>
      </trkpt>
      <trkpt lat="35.232270" lon="-112.605310">
        <ele>1540.265</ele>
        <time>2018-12-29T07:47:56Z</time>
      </trkpt>
      <trkpt lat="35.232560" lon="-112.607810">
        <ele>1542.537</ele>
        <time>2018-12-29T07:48:16Z</time>
      </trkpt>
      <trkpt lat="35.232690" lon="-112.608870">
        <ele>1543.161</ele>
        <time>2018-12-29T07:48:36Z</time>
      </trkpt>
      <trkpt lat="35.232740" lon="-112.609340">
        <ele>1543.271</ele>
        <time>2018-12-29T07:48:56Z</time>
      </trkpt>
      <trkpt lat="35.232760" lon="-112.609510">
        <ele>1543.241</ele>
        <time>2018-12-29T07:49:16Z</time>
      </trkpt>
      <trkpt lat="35.232780" lon="-112.609670">
        <ele>1543.215</ele>
        <time>2018-12-29T07:49:36Z</time>
      </trkpt>
      <trkpt lat="35.232840" lon="-112.610120">
        <ele>1543.208</ele>
        <time>2018-12-29T07:49:56Z</time>
      </trkpt>
      <trkpt lat="35.232940" lon="-112.611020">
        <ele>1543.270</ele>
        <time>2018-12-29T07:50:16Z</time>
      </trkpt>
      <trkpt lat="35.233030" lon="-112.611840">
        <ele>1543.238</ele>
        <time>2018-12-29T07:50:36Z</time>
      </trkpt>
      <trkpt lat="35.233120" lon="-112.612650">
        <ele>1544.843</ele>
        <time>2018-12-29T07:50:56Z</time>
      </trkpt>
      <trkpt lat="35.233230" lon="-112.613520">
        <ele>1549.244</ele>
        <time>2018-12-29T07:51:16Z</time>
      </trkpt>
      <trkpt lat="35.233380" lon="-112.614870">
        <ele>1550.819</ele>
        <time>2018-12-29T07:51:36Z</time>
      </trkpt>
      <trkpt lat="35.233530" lon="-112.616180">
        <ele>1555.299</ele>
        <time>2018-12-29T07:51:56Z</time>
      </trkpt>
      <trkpt lat="35.233690" lon="-112.617540">
        <ele>1556.081</ele>
        <time>2018-12-29T07:52:16Z</time>
      </trkpt>
      <trkpt lat="35.233840" lon="-112.618850">
        <ele>1561.475</ele>
        <time>2018-12-29T07:52:36Z</time>
      </trkpt>
      <trkpt lat="35.233950" lon="-112.619810">
        <ele>1562.563</ele>
        <time>2018-12-29T07:52:56Z</time>
      </trkpt>
      <trkpt lat="35.234010" lon="-112.620340">
        <ele>1566.844</ele>
        <time>2018-12-29T07:53:16Z</time>
      </trkpt>
      <trkpt lat="35.234070" lon="-112.620860">
        <ele>1567.018</ele>
        <time>2018-12-29T07:53:36Z</time>
      </trkpt>
      <trkpt lat="35.234200" lon="-112.622000">
        <ele>1567.208</ele>
        <time>2018-12-29T07:53:56Z</time>
      </trkpt>
      <trkpt lat="35.234270" lon="-112.622560">
        <ele>1567.689</ele>
        <time>2018-12-29T07:54:16Z</time>
      </trkpt>
      <trkpt lat="35.234390" lon="-112.623620">
        <ele>1568.797</ele>
        <time>2018-12-29T07:54:36Z</time>
      </trkpt>
      <trkpt lat="35.234480" lon="-112.624420">
        <ele>1569.762</ele>
        <time>2018-12-29T07:54:56Z</time>
      </trkpt>
      <trkpt lat="35.234560" lon="-112.625060">
        <ele>1570.513</ele>
        <time>2018-12-29T07:55:16Z</time>
      </trkpt>
      <trkpt lat="35.234670" lon="-112.626030">
        <ele>1572.928</ele>
        <time>2018-12-29T07:55:36Z</time>
      </trkpt>
      <trkpt lat="35.234760" lon="-112.626890">
        <ele>1573.748</ele>
        <time>2018-12-29T07:55:56Z</time>
      </trkpt>
      <trkpt lat="35.234830" lon="-112.627430">
        <ele>1574.830</ele>
        <time>2018-12-29T07:56:16Z</time>
      </trkpt>
      <trkpt lat="35.234920" lon="-112.628260">
        <ele>1577.914</ele>
        <time>2018-12-29T07:56:36Z</time>
      </trkpt>
      <trkpt lat="35.234990" lon="-112.628880">
        <ele>1579.593</ele>
        <time>2018-12-29T07:56:56Z</time>
      </trkpt>
      <trkpt lat="35.235070" lon="-112.629530">
        <ele>1580.465</ele>
        <time>2018-12-29T07:57:16Z</time>
      </trkpt>
      <trkpt lat="35.235140" lon="-112.630180">
        <ele>1583.821</ele>
        <time>2018-12-29T07:57:36Z</time>
      </trkpt>
      <trkpt lat="35.235200" lon="-112.630670">
        <ele>1584.808</ele>
        <time>2018-12-29T07:57:56Z</time>
      </trkpt>
      <trkpt lat="35.235270" lon="-112.631230">
        <ele>1585.252</ele>
        <time>2018-12-29T07:58:16Z</time>
      </trkpt>
      <trkpt lat="35.235370" lon="-112.632100">
        <ele>1585.690</ele>
        <time>2018-12-29T07:58:36Z</time>
      </trkpt>
      <trkpt lat="35.235600" lon="-112.634100">
        <ele>1584.045</ele>
        <time>2018-12-29T07:58:56Z</time>
      </trkpt>
      <trkpt lat="35.235740" lon="-112.635330">
        <ele>1576.856</ele>
        <time>2018-12-29T07:59:16Z</time>
      </trkpt>
      <trkpt lat="35.235830" lon="-112.636050">
        <ele>1575.561</ele>
        <time>2018-12-29T07:59:36Z</time>
      </trkpt>
      <trkpt lat="35.235930" lon="-112.636940">
        <ele>1577.491</ele>
        <time>2018-12-29T07:59:56Z</time>
      </trkpt>
      <trkpt lat="35.236080" lon="-112.638260">
        <ele>1581.523</ele>
        <time>2018-12-29T08:00:16Z</time>
      </trkpt>
      <trkpt lat="35.236230" lon="-112.639580">
        <ele>1582.287</ele>
        <time>2018-12-29T08:00:36Z</time>
      </trkpt>
      <trkpt lat="35.236350" lon="-112.640580">
        <ele>1581.375</ele>
        <time>2018-12-29T08:00:56Z</time>
      </trkpt>
      <trkpt lat="35.236420" lon="-112.641210">
        <ele>1583.428</ele>
        <time>2018-12-29T08:01:16Z</time>
      </trkpt>
      <trkpt lat="35.236490" lon="-112.641810">
        <ele>1585.320</ele>
        <time>2018-12-29T08:01:36Z</time>
      </trkpt>
      <trkpt lat="35.236570" lon="-112.642480">
        <ele>1590.808</ele>
        <time>2018-12-29T08:01:56Z</time>
      </trkpt>
      <trkpt lat="35.236620" lon="-112.643000">
        <ele>1592.930</ele>
        <time>2018-12-29T08:02:16Z</time>
      </trkpt>
      <trkpt lat="35.236690" lon="-112.643490">
        <ele>1591.978</ele>
        <time>2018-12-29T08:02:36Z</time>
      </trkpt>
      <trkpt lat="35.236750" lon="-112.644070">
        <ele>1591.633</ele>
        <time>2018-12-29T08:02:56Z</time>
      </trkpt>
      <trkpt lat="35.236820" lon="-112.644660">
        <ele>1594.624</ele>
        <time>2018-12-29T08:03:16Z</time>
      </trkpt>
      <trkpt lat="35.236850" lon="-112.644950">
        <ele>1593.879</ele>
        <time>2018-12-29T08:03:36Z</time>
      </trkpt>
      <trkpt lat="35.236860" lon="-112.645140">
        <ele>1593.589</ele>
        <time>2018-12-29T08:03:56Z</time>
      </trkpt>
      <trkpt lat="35.236880" lon="-112.645320">
        <ele>1592.961</ele>
        <time>2018-12-29T08:04:16Z</time>
      </trkpt>
      <trkpt lat="35.236900" lon="-112.645480">
        <ele>1592.515</ele>
        <time>2018-12-29T08:04:36Z</time>
      </trkpt>
      <trkpt lat="35.236930" lon="-112.645740">
        <ele>1592.234</ele>
        <time>2018-12-29T08:04:56Z</time>
      </trkpt>
      <trkpt lat="35.236970" lon="-112.646020">
        <ele>1593.655</ele>
        <time>2018-12-29T08:05:16Z</time>
      </trkpt>
      <trkpt lat="35.237020" lon="-112.646410">
        <ele>1597.810</ele>
        <time>2018-12-29T08:05:36Z</time>
      </trkpt>
      <trkpt lat="35.237130" lon="-112.647210">
        <ele>1601.808</ele>
        <time>2018-12-29T08:05:56Z</time>
      </trkpt>
      <trkpt lat="35.237200" lon="-112.647740">
        <ele>1604.146</ele>
        <time>2018-12-29T08:06:16Z</time>
      </trkpt>
      <trkpt lat="35.237260" lon="-112.648150">
        <ele>1604.314</ele>
        <time>2018-12-29T08:06:36Z</time>
      </trkpt>
      <trkpt lat="35.237320" lon="-112.648540">
        <ele>1606.999</ele>
        <time>2018-12-29T08:06:56Z</time>
      </trkpt>
      <trkpt lat="35.237420" lon="-112.649210">
        <ele>1610.250</ele>
        <time>2018-12-29T08:07:16Z</time>
      </trkpt>
      <trkpt lat="35.237500" lon="-112.649730">
        <ele>1611.055</ele>
        <time>2018-12-29T08:07:36Z</time>
      </trkpt>
      <trkpt lat="35.237550" lon="-112.650000">
        <ele>1611.815</ele>
        <time>2018-12-29T08:07:56Z</time>
      </trkpt>
      <trkpt lat="35.237610" lon="-112.650400">
        <ele>1610.727</ele>
        <time>2018-12-29T08:08:16Z</time>
      </trkpt>
      <trkpt lat="35.237730" lon="-112.651090">
        <ele>1613.641</ele>
        <time>2018-12-29T08:08:36Z</time>
      </trkpt>
      <trkpt lat="35.237840" lon="-112.651720">
        <ele>1614.199</ele>
        <time>2018-12-29T08:08:56Z</time>
      </trkpt>
      <trkpt lat="35.237940" lon="-112.652280">
        <ele>1612.807</ele>
        <time>2018-12-29T08:09:16Z</time>
      </trkpt>
      <trkpt lat="35.238040" lon="-112.652810">
        <ele>1613.427</ele>
        <time>2018-12-29T08:09:36Z</time>
      </trkpt>
      <trkpt lat="35.238090" lon="-112.653080">
        <ele>1613.508</ele>
        <time>2018-12-29T08:09:56Z</time>
      </trkpt>
      <trkpt lat="35.238160" lon="-112.653470">
        <ele>1613.372</ele>
        <time>2018-12-29T08:10:16Z</time>
      </trkpt>
      <trkpt lat="35.238210" lon="-112.653740">
        <ele>1613.440</ele>
        <time>2018-12-29T08:10:36Z</time>
      </trkpt>
      <trkpt lat="35.238290" lon="-112.654130">
        <ele>1614.195</ele>
        <time>2018-12-29T08:10:56Z</time>
      </trkpt>
      <trkpt lat="35.238340" lon="-112.654390">
        <ele>1615.036</ele>
        <time>2018-12-29T08:11:16Z</time>
      </trkpt>
      <trkpt lat="35.238430" lon="-112.654780">
        <ele>1616.231</ele>
        <time>2018-12-29T08:11:36Z</time>
      </trkpt>
      <trkpt lat="35.238510" lon="-112.655190">
        <ele>1616.421</ele>
        <time>2018-12-29T08:11:56Z</time>
      </trkpt>
      <trkpt lat="35.238600" lon="-112.655590">
        <ele>1616.723</ele>
        <time>2018-12-29T08:12:16Z</time>
      </trkpt>
      <trkpt lat="35.238680" lon="-112.655980">
        <ele>1617.927</ele>
        <time>2018-12-29T08:12:36Z</time>
      </trkpt>
      <trkpt lat="35.238760" lon="-112.656370">
        <ele>1619.921</ele>
        <time>2018-12-29T08:12:56Z</time>
      </trkpt>
      <trkpt lat="35.238880" lon="-112.656900">
        <ele>1622.141</ele>
        <time>2018-12-29T08:13:16Z</time>
      </trkpt>
      <trkpt lat="35.238970" lon="-112.657300">
        <ele>1622.505</ele>
        <time>2018-12-29T08:13:36Z</time>
      </trkpt>
      <trkpt lat="35.239060" lon="-112.657690">
        <ele>1622.608</ele>
        <time>2018-12-29T08:13:56Z</time>
      </trkpt>
      <trkpt lat="35.239160" lon="-112.658080">
        <ele>1623.255</ele>
        <time>2018-12-29T08:14:16Z</time>
      </trkpt>
      <trkpt lat="35.239220" lon="-112.658360">
        <ele>1623.983</ele>
        <time>2018-12-29T08:14:36Z</time>
      </trkpt>
      <trkpt lat="35.239290" lon="-112.658620">
        <ele>1625.198</ele>
        <time>2018-12-29T08:14:56Z</time>
      </trkpt>
      <trkpt lat="35.239540" lon="-112.659650">
        <ele>1628.719</ele>
        <time>2018-12-29T08:15:16Z</time>
      </trkpt>
      <trkpt lat="35.239710" lon="-112.660310">
        <ele>1629.364</ele>
        <time>2018-12-29T08:15:36Z</time>
      </trkpt>
      <trkpt lat="35.239750" lon="-112.660450">
        <ele>1630.144</ele>
        <time>2018-12-29T08:15:56Z</time>
      </trkpt>
      <trkpt lat="35.239880" lon="-112.660940">
        <ele>1634.436</ele>
        <time>2018-12-29T08:16:16Z</time>
      </trkpt>
      <trkpt lat="35.239950" lon="-112.661210">
        <ele>1634.570</ele>
        <time>2018-12-29T08:16:36Z</time>
      </trkpt>
      <trkpt lat="35.240010" lon="-112.661460">
        <ele>1635.426</ele>
        <time>2018-12-29T08:16:56Z</time>
      </trkpt>
      <trkpt lat="35.240120" lon="-112.661840">
        <ele>1637.747</ele>
        <time>2018-12-29T08:17:16Z</time>
      </trkpt>
      <trkpt lat="35.240190" lon="-112.662100">
        <ele>1639.111</ele>
        <time>2018-12-29T08:17:36Z</time>
      </trkpt>
      <trkpt lat="35.240330" lon="-112.662610">
        <ele>1640.708</ele>
        <time>2018-12-29T08:17:56Z</time>
      </trkpt>
      <trkpt lat="35.240450" lon="-112.663010">
        <ele>1642.125</ele>
        <time>2018-12-29T08:18:16Z</time>
      </trkpt>
      <trkpt lat="35.240590" lon="-112.663500">
        <ele>1645.813</ele>
        <time>2018-12-29T08:18:36Z</time>
      </trkpt>
      <trkpt lat="35.240710" lon="-112.663900">
        <ele>1646.548</ele>
        <time>2018-12-29T08:18:56Z</time>
      </trkpt>
      <trkpt lat="35.240860" lon="-112.664410">
        <ele>1646.969</ele>
        <time>2018-12-29T08:19:16Z</time>
      </trkpt>
      <trkpt lat="35.240940" lon="-112.664660">
        <ele>1647.314</ele>
        <time>2018-12-29T08:19:36Z</time>
      </trkpt>
      <trkpt lat="35.241020" lon="-112.664930">
        <ele>1648.114</ele>
        <time>2018-12-29T08:19:56Z</time>
      </trkpt>
      <trkpt lat="35.241130" lon="-112.665300">
        <ele>1649.176</ele>
        <time>2018-12-29T08:20:16Z</time>
      </trkpt>
      <trkpt lat="35.241250" lon="-112.665680">
        <ele>1650.470</ele>
        <time>2018-12-29T08:20:36Z</time>
      </trkpt>
      <trkpt lat="35.241410" lon="-112.666180">
        <ele>1651.919</ele>
        <time>2018-12-29T08:20:56Z</time>
      </trkpt>
      <trkpt lat="35.241530" lon="-112.666570">
        <ele>1652.509</ele>
        <time>2018-12-29T08:21:16Z</time>
      </trkpt>
      <trkpt lat="35.241790" lon="-112.667300">
        <ele>1653.019</ele>
        <time>2018-12-29T08:21:36Z</time>
      </trkpt>
      <trkpt lat="35.242250" lon="-112.668710">
        <ele>1653.208</ele>
        <time>2018-12-29T08:21:56Z</time>
      </trkpt>
      <trkpt lat="35.242590" lon="-112.669640">
        <ele>1653.354</ele>
        <time>2018-12-29T08:22:16Z</time>
      </trkpt>
      <trkpt lat="35.242820" lon="-112.670290">
        <ele>1655.632</ele>
        <time>2018-12-29T08:22:36Z</time>
      </trkpt>
      <trkpt lat="35.243110" lon="-112.671050">
        <ele>1659.037</ele>
        <time>2018-12-29T08:22:56Z</time>
      </trkpt>
      <trkpt lat="35.243460" lon="-112.672030">
        <ele>1659.258</ele>
        <time>2018-12-29T08:23:16Z</time>
      </trkpt>
      <trkpt lat="35.243880" lon="-112.673160">
        <ele>1662.133</ele>
        <time>2018-12-29T08:23:36Z</time>
      </trkpt>
      <trkpt lat="35.244660" lon="-112.675280">
        <ele>1666.663</ele>
        <time>2018-12-29T08:23:56Z</time>
      </trkpt>
      <trkpt lat="35.245070" lon="-112.676390">
        <ele>1669.515</ele>
        <time>2018-12-29T08:24:16Z</time>
      </trkpt>
      <trkpt lat="35.245470" lon="-112.677500">
        <ele>1671.469</ele>
        <time>2018-12-29T08:24:36Z</time>
      </trkpt>
      <trkpt lat="35.246020" lon="-112.678990">
        <ele>1672.397</ele>
        <time>2018-12-29T08:24:56Z</time>
      </trkpt>
      <trkpt lat="35.246790" lon="-112.681090">
        <ele>1670.723</ele>
        <time>2018-12-29T08:25:16Z</time>
      </trkpt>
      <trkpt lat="35.247890" lon="-112.684080">
        <ele>1679.725</ele>
        <time>2018-12-29T08:25:36Z</time>
      </trkpt>
      <trkpt lat="35.248880" lon="-112.686790">
        <ele>1691.308</ele>
        <time>2018-12-29T08:25:56Z</time>
      </trkpt>
      <trkpt lat="35.249630" lon="-112.688810">
        <ele>1696.012</ele>
        <time>2018-12-29T08:26:16Z</time>
      </trkpt>
      <trkpt lat="35.250030" lon="-112.689920">
        <ele>1700.930</ele>
        <time>2018-12-29T08:26:36Z</time>
      </trkpt>
      <trkpt lat="35.250490" lon="-112.691160">
        <ele>1704.435</ele>
        <time>2018-12-29T08:26:56Z</time>
      </trkpt>
      <trkpt lat="35.251080" lon="-112.692770">
        <ele>1708.036</ele>
        <time>2018-12-29T08:27:16Z</time>
      </trkpt>
      <trkpt lat="35.251540" lon="-112.694020">
        <ele>1710.351</ele>
        <time>2018-12-29T08:27:36Z</time>
      </trkpt>
      <trkpt lat="35.252170" lon="-112.695750">
        <ele>1711.211</ele>
        <time>2018-12-29T08:27:56Z</time>
      </trkpt>
      <trkpt lat="35.252490" lon="-112.696600">
        <ele>1710.993</ele>
        <time>2018-12-29T08:28:16Z</time>
      </trkpt>
      <trkpt lat="35.252860" lon="-112.697600">
        <ele>1713.587</ele>
        <time>2018-12-29T08:28:36Z</time>
      </trkpt>
      <trkpt lat="35.253040" lon="-112.698100">
        <ele>1713.936</ele>
        <time>2018-12-29T08:28:56Z</time>
      </trkpt>
      <trkpt lat="35.253450" lon="-112.699220">
        <ele>1718.917</ele>
        <time>2018-12-29T08:29:16Z</time>
      </trkpt>
      <trkpt lat="35.253940" lon="-112.700550">
        <ele>1722.518</ele>
        <time>2018-12-29T08:29:36Z</time>
      </trkpt>
      <trkpt lat="35.254620" lon="-112.702400">
        <ele>1732.008</ele>
        <time>2018-12-29T08:29:56Z</time>
      </trkpt>
      <trkpt lat="35.255590" lon="-112.705040">
        <ele>1738.486</ele>
        <time>2018-12-29T08:30:16Z</time>
      </trkpt>
      <trkpt lat="35.256040" lon="-112.706290">
        <ele>1740.324</ele>
        <time>2018-12-29T08:30:36Z</time>
      </trkpt>
      <trkpt lat="35.256380" lon="-112.707210">
        <ele>1744.429</ele>
        <time>2018-12-29T08:30:56Z</time>
      </trkpt>
      <trkpt lat="35.256590" lon="-112.707790">
        <ele>1744.510</ele>
        <time>2018-12-29T08:31:16Z</time>
      </trkpt>
      <trkpt lat="35.256810" lon="-112.708380">
        <ele>1745.425</ele>
        <time>2018-12-29T08:31:36Z</time>
      </trkpt>
      <trkpt lat="35.257170" lon="-112.709370">
        <ele>1748.325</ele>
        <time>2018-12-29T08:31:56Z</time>
      </trkpt>
      <trkpt lat="35.257630" lon="-112.710610">
        <ele>1750.577</ele>
        <time>2018-12-29T08:32:16Z</time>
      </trkpt>
      <trkpt lat="35.257820" lon="-112.711150">
        <ele>1751.241</ele>
        <time>2018-12-29T08:32:36Z</time>
      </trkpt>
      <trkpt lat="35.258040" lon="-112.711730">
        <ele>1753.622</ele>
        <time>2018-12-29T08:32:56Z</time>
      </trkpt>
      <trkpt lat="35.258210" lon="-112.712170">
        <ele>1756.662</ele>
        <time>2018-12-29T08:33:16Z</time>
      </trkpt>
      <trkpt lat="35.258540" lon="-112.712990">
        <ele>1757.208</ele>
        <time>2018-12-29T08:33:36Z</time>
      </trkpt>
      <trkpt lat="35.259020" lon="-112.714090">
        <ele>1762.808</ele>
        <time>2018-12-29T08:33:56Z</time>
      </trkpt>
      <trkpt lat="35.259290" lon="-112.714660">
        <ele>1763.055</ele>
        <time>2018-12-29T08:34:16Z</time>
      </trkpt>
      <trkpt lat="35.259470" lon="-112.715050">
        <ele>1764.883</ele>
        <time>2018-12-29T08:34:36Z</time>
      </trkpt>
      <trkpt lat="35.259790" lon="-112.715690">
        <ele>1768.358</ele>
        <time>2018-12-29T08:34:56Z</time>
      </trkpt>
      <trkpt lat="35.259920" lon="-112.715980">
        <ele>1768.769</ele>
        <time>2018-12-29T08:35:16Z</time>
      </trkpt>
      <trkpt lat="35.260020" lon="-112.716160">
        <ele>1768.974</ele>
        <time>2018-12-29T08:35:36Z</time>
      </trkpt>
      <trkpt lat="35.260040" lon="-112.716190">
        <ele>1768.954</ele>
        <time>2018-12-29T08:35:56Z</time>
      </trkpt>
      <trkpt lat="35.260040" lon="-112.716200">
        <ele>1768.996</ele>
        <time>2018-12-29T08:36:16Z</time>
      </trkpt>
      <trkpt lat="35.260290" lon="-112.716640">
        <ele>1769.170</ele>
        <time>2018-12-29T08:36:36Z</time>
      </trkpt>
      <trkpt lat="35.260510" lon="-112.717040">
        <ele>1769.311</ele>
        <time>2018-12-29T08:36:56Z</time>
      </trkpt>
      <trkpt lat="35.260790" lon="-112.717550">
        <ele>1769.921</ele>
        <time>2018-12-29T08:37:16Z</time>
      </trkpt>
      <trkpt lat="35.261150" lon="-112.718180">
        <ele>1770.403</ele>
        <time>2018-12-29T08:37:36Z</time>
      </trkpt>
      <trkpt lat="35.261580" lon="-112.718880">
        <ele>1771.808</ele>
        <time>2018-12-29T08:37:56Z</time>
      </trkpt>
      <trkpt lat="35.261940" lon="-112.719450">
        <ele>1773.024</ele>
        <time>2018-12-29T08:38:16Z</time>
      </trkpt>
      <trkpt lat="35.262350" lon="-112.720070">
        <ele>1774.522</ele>
        <time>2018-12-29T08:38:36Z</time>
      </trkpt>
      <trkpt lat="35.262390" lon="-112.720130">
        <ele>1774.517</ele>
        <time>2018-12-29T08:38:56Z</time>
      </trkpt>
      <trkpt lat="35.262830" lon="-112.720740">
        <ele>1774.378</ele>
        <time>2018-12-29T08:39:16Z</time>
      </trkpt>
      <trkpt lat="35.263380" lon="-112.721500">
        <ele>1774.083</ele>
        <time>2018-12-29T08:39:36Z</time>
      </trkpt>
      <trkpt lat="35.263570" lon="-112.721750">
        <ele>1774.023</ele>
        <time>2018-12-29T08:39:56Z</time>
      </trkpt>
      <trkpt lat="35.263800" lon="-112.722040">
        <ele>1774.245</ele>
        <time>2018-12-29T08:40:16Z</time>
      </trkpt>
      <trkpt lat="35.263990" lon="-112.722270">
        <ele>1774.349</ele>
        <time>2018-12-29T08:40:36Z</time>
      </trkpt>
      <trkpt lat="35.264160" lon="-112.722490">
        <ele>1774.812</ele>
        <time>2018-12-29T08:40:56Z</time>
      </trkpt>
      <trkpt lat="35.264750" lon="-112.723200">
        <ele>1773.932</ele>
        <time>2018-12-29T08:41:16Z</time>
      </trkpt>
      <trkpt lat="35.265130" lon="-112.723620">
        <ele>1773.905</ele>
        <time>2018-12-29T08:41:36Z</time>
      </trkpt>
      <trkpt lat="35.265640" lon="-112.724180">
        <ele>1772.908</ele>
        <time>2018-12-29T08:41:56Z</time>
      </trkpt>
      <trkpt lat="35.266680" lon="-112.725350">
        <ele>1771.134</ele>
        <time>2018-12-29T08:42:16Z</time>
      </trkpt>
      <trkpt lat="35.267320" lon="-112.726070">
        <ele>1770.722</ele>
        <time>2018-12-29T08:42:36Z</time>
      </trkpt>
      <trkpt lat="35.267770" lon="-112.726590">
        <ele>1770.577</ele>
        <time>2018-12-29T08:42:56Z</time>
      </trkpt>
      <trkpt lat="35.268290" lon="-112.727230">
        <ele>1769.658</ele>
        <time>2018-12-29T08:43:16Z</time>
      </trkpt>
      <trkpt lat="35.268610" lon="-112.727650">
        <ele>1769.443</ele>
        <time>2018-12-29T08:43:36Z</time>
      </trkpt>
      <trkpt lat="35.268730" lon="-112.727810">
        <ele>1769.553</ele>
        <time>2018-12-29T08:43:56Z</time>
      </trkpt>
      <trkpt lat="35.268860" lon="-112.728010">
        <ele>1769.685</ele>
        <time>2018-12-29T08:44:16Z</time>
      </trkpt>
      <trkpt lat="35.269040" lon="-112.728270">
        <ele>1769.689</ele>
        <time>2018-12-29T08:44:36Z</time>
      </trkpt>
      <trkpt lat="35.269380" lon="-112.728790">
        <ele>1769.796</ele>
        <time>2018-12-29T08:44:56Z</time>
      </trkpt>
      <trkpt lat="35.269520" lon="-112.729020">
        <ele>1769.731</ele>
        <time>2018-12-29T08:45:16Z</time>
      </trkpt>
      <trkpt lat="35.269660" lon="-112.729240">
        <ele>1769.624</ele>
        <time>2018-12-29T08:45:36Z</time>
      </trkpt>
      <trkpt lat="35.269830" lon="-112.729540">
        <ele>1769.708</ele>
        <time>2018-12-29T08:45:56Z</time>
      </trkpt>
      <trkpt lat="35.269980" lon="-112.729810">
        <ele>1769.872</ele>
        <time>2018-12-29T08:46:16Z</time>
      </trkpt>
      <trkpt lat="35.270160" lon="-112.730140">
        <ele>1770.360</ele>
        <time>2018-12-29T08:46:36Z</time>
      </trkpt>
      <trkpt lat="35.270390" lon="-112.730610">
        <ele>1770.915</ele>
        <time>2018-12-29T08:46:56Z</time>
      </trkpt>
      <trkpt lat="35.270590" lon="-112.731010">
        <ele>1770.136</ele>
        <time>2018-12-29T08:47:16Z</time>
      </trkpt>
      <trkpt lat="35.270700" lon="-112.731250">
        <ele>1769.971</ele>
        <time>2018-12-29T08:47:36Z</time>
      </trkpt>
      <trkpt lat="35.270830" lon="-112.731550">
        <ele>1769.891</ele>
        <time>2018-12-29T08:47:56Z</time>
      </trkpt>
      <trkpt lat="35.271060" lon="-112.732140">
        <ele>1769.923</ele>
        <time>2018-12-29T08:48:16Z</time>
      </trkpt>
      <trkpt lat="35.271140" lon="-112.732370">
        <ele>1770.227</ele>
        <time>2018-12-29T08:48:36Z</time>
      </trkpt>
      <trkpt lat="35.271210" lon="-112.732560">
        <ele>1769.451</ele>
        <time>2018-12-29T08:48:56Z</time>
      </trkpt>
      <trkpt lat="35.271330" lon="-112.732880">
        <ele>1766.901</ele>
        <time>2018-12-29T08:49:16Z</time>
      </trkpt>
      <trkpt lat="35.271440" lon="-112.733190">
        <ele>1766.211</ele>
        <time>2018-12-29T08:49:36Z</time>
      </trkpt>
      <trkpt lat="35.271530" lon="-112.733480">
        <ele>1766.008</ele>
        <time>2018-12-29T08:49:56Z</time>
      </trkpt>
      <trkpt lat="35.271620" lon="-112.733780">
        <ele>1765.518</ele>
        <time>2018-12-29T08:50:16Z</time>
      </trkpt>
      <trkpt lat="35.271750" lon="-112.734200">
        <ele>1765.056</ele>
        <time>2018-12-29T08:50:36Z</time>
      </trkpt>
      <trkpt lat="35.271900" lon="-112.734800">
        <ele>1762.831</ele>
        <time>2018-12-29T08:50:56Z</time>
      </trkpt>
      <trkpt lat="35.271940" lon="-112.734960">
        <ele>1762.432</ele>
        <time>2018-12-29T08:51:16Z</time>
      </trkpt>
      <trkpt lat="35.271990" lon="-112.735180">
        <ele>1762.267</ele>
        <time>2018-12-29T08:51:36Z</time>
      </trkpt>
      <trkpt lat="35.272060" lon="-112.735480">
        <ele>1760.767</ele>
        <time>2018-12-29T08:51:56Z</time>
      </trkpt>
      <trkpt lat="35.272100" lon="-112.735650">
        <ele>1759.699</ele>
        <time>2018-12-29T08:52:16Z</time>
      </trkpt>
      <trkpt lat="35.272160" lon="-112.735920">
        <ele>1758.893</ele>
        <time>2018-12-29T08:52:36Z</time>
      </trkpt>
      <trkpt lat="35.272200" lon="-112.736140">
        <ele>1758.583</ele>
        <time>2018-12-29T08:52:56Z</time>
      </trkpt>
      <trkpt lat="35.272290" lon="-112.736650">
        <ele>1757.725</ele>
        <time>2018-12-29T08:53:16Z</time>
      </trkpt>
      <trkpt lat="35.272350" lon="-112.736980">
        <ele>1757.617</ele>
        <time>2018-12-29T08:53:36Z</time>
      </trkpt>
      <trkpt lat="35.272410" lon="-112.737430">
        <ele>1756.708</ele>
        <time>2018-12-29T08:53:56Z</time>
      </trkpt>
      <trkpt lat="35.272460" lon="-112.737890">
        <ele>1757.431</ele>
        <time>2018-12-29T08:54:16Z</time>
      </trkpt>
      <trkpt lat="35.272540" lon="-112.738780">
        <ele>1762.479</ele>
        <time>2018-12-29T08:54:36Z</time>
      </trkpt>
      <trkpt lat="35.272560" lon="-112.739040">
        <ele>1763.434</ele>
        <time>2018-12-29T08:54:56Z</time>
      </trkpt>
      <trkpt lat="35.272570" lon="-112.739260">
        <ele>1765.235</ele>
        <time>2018-12-29T08:55:16Z</time>
      </trkpt>
      <trkpt lat="35.272590" lon="-112.739830">
        <ele>1767.440</ele>
        <time>2018-12-29T08:55:36Z</time>
      </trkpt>
      <trkpt lat="35.272610" lon="-112.740920">
        <ele>1767.690</ele>
        <time>2018-12-29T08:55:56Z</time>
      </trkpt>
      <trkpt lat="35.272620" lon="-112.741450">
        <ele>1768.822</ele>
        <time>2018-12-29T08:56:16Z</time>
      </trkpt>
      <trkpt lat="35.272640" lon="-112.742650">
        <ele>1771.266</ele>
        <time>2018-12-29T08:56:36Z</time>
      </trkpt>
      <trkpt lat="35.272670" lon="-112.744320">
        <ele>1774.163</ele>
        <time>2018-12-29T08:56:56Z</time>
      </trkpt>
      <trkpt lat="35.272700" lon="-112.745960">
        <ele>1774.644</ele>
        <time>2018-12-29T08:57:16Z</time>
      </trkpt>
      <trkpt lat="35.272740" lon="-112.748790">
        <ele>1774.818</ele>
        <time>2018-12-29T08:57:36Z</time>
      </trkpt>
      <trkpt lat="35.272760" lon="-112.749880">
        <ele>1772.108</ele>
        <time>2018-12-29T08:57:56Z</time>
      </trkpt>
      <trkpt lat="35.272760" lon="-112.750300">
        <ele>1770.099</ele>
        <time>2018-12-29T08:58:16Z</time>
      </trkpt>
      <trkpt lat="35.272780" lon="-112.751170">
        <ele>1768.877</ele>
        <time>2018-12-29T08:58:36Z</time>
      </trkpt>
      <trkpt lat="35.272790" lon="-112.751950">
        <ele>1767.032</ele>
        <time>2018-12-29T08:58:56Z</time>
      </trkpt>
      <trkpt lat="35.272800" lon="-112.752370">
        <ele>1765.283</ele>
        <time>2018-12-29T08:59:16Z</time>
      </trkpt>
      <trkpt lat="35.272810" lon="-112.752700">
        <ele>1764.818</ele>
        <time>2018-12-29T08:59:36Z</time>
      </trkpt>
      <trkpt lat="35.272830" lon="-112.753230">
        <ele>1764.668</ele>
        <time>2018-12-29T08:59:56Z</time>
      </trkpt>
      <trkpt lat="35.272860" lon="-112.753740">
        <ele>1764.320</ele>
        <time>2018-12-29T09:00:16Z</time>
      </trkpt>
      <trkpt lat="35.272870" lon="-112.753920">
        <ele>1764.284</ele>
        <time>2018-12-29T09:00:36Z</time>
      </trkpt>
      <trkpt lat="35.272900" lon="-112.754440">
        <ele>1763.917</ele>
        <time>2018-12-29T09:00:56Z</time>
      </trkpt>
      <trkpt lat="35.272920" lon="-112.754720">
        <ele>1763.787</ele>
        <time>2018-12-29T09:01:16Z</time>
      </trkpt>
      <trkpt lat="35.272940" lon="-112.754950">
        <ele>1763.515</ele>
        <time>2018-12-29T09:01:36Z</time>
      </trkpt>
      <trkpt lat="35.272950" lon="-112.755120">
        <ele>1763.508</ele>
        <time>2018-12-29T09:01:56Z</time>
      </trkpt>
      <trkpt lat="35.272970" lon="-112.755340">
        <ele>1763.574</ele>
        <time>2018-12-29T09:02:16Z</time>
      </trkpt>
      <trkpt lat="35.273000" lon="-112.755630">
        <ele>1764.042</ele>
        <time>2018-12-29T09:02:36Z</time>
      </trkpt>
      <trkpt lat="35.273050" lon="-112.756090">
        <ele>1765.117</ele>
        <time>2018-12-29T09:02:56Z</time>
      </trkpt>
      <trkpt lat="35.273080" lon="-112.756440">
        <ele>1765.578</ele>
        <time>2018-12-29T09:03:16Z</time>
      </trkpt>
      <trkpt lat="35.273150" lon="-112.756980">
        <ele>1765.863</ele>
        <time>2018-12-29T09:03:36Z</time>
      </trkpt>
      <trkpt lat="35.273200" lon="-112.757350">
        <ele>1765.553</ele>
        <time>2018-12-29T09:03:56Z</time>
      </trkpt>
      <trkpt lat="35.273240" lon="-112.757640">
        <ele>1764.525</ele>
        <time>2018-12-29T09:04:16Z</time>
      </trkpt>
      <trkpt lat="35.273260" lon="-112.757780">
        <ele>1763.619</ele>
        <time>2018-12-29T09:04:36Z</time>
      </trkpt>
      <trkpt lat="35.273320" lon="-112.758160">
        <ele>1761.368</ele>
        <time>2018-12-29T09:04:56Z</time>
      </trkpt>
      <trkpt lat="35.273440" lon="-112.758930">
        <ele>1757.942</ele>
        <time>2018-12-29T09:05:16Z</time>
      </trkpt>
      <trkpt lat="35.273490" lon="-112.759240">
        <ele>1757.326</ele>
        <time>2018-12-29T09:05:36Z</time>
      </trkpt>
      <trkpt lat="35.273560" lon="-112.759620">
        <ele>1756.808</ele>
        <time>2018-12-29T09:05:56Z</time>
      </trkpt>
      <trkpt lat="35.273630" lon="-112.759980">
        <ele>1756.799</ele>
        <time>2018-12-29T09:06:16Z</time>
      </trkpt>
      <trkpt lat="35.273730" lon="-112.760470">
        <ele>1756.817</ele>
        <time>2018-12-29T09:06:36Z</time>
      </trkpt>
      <trkpt lat="35.273830" lon="-112.760970">
        <ele>1756.712</ele>
        <time>2018-12-29T09:06:56Z</time>
      </trkpt>
      <trkpt lat="35.273900" lon="-112.761270">
        <ele>1756.873</ele>
        <time>2018-12-29T09:07:16Z</time>
      </trkpt>
      <trkpt lat="35.274070" lon="-112.762020">
        <ele>1755.198</ele>
        <time>2018-12-29T09:07:36Z</time>
      </trkpt>
      <trkpt lat="35.274340" lon="-112.763020">
        <ele>1750.638</ele>
        <time>2018-12-29T09:07:56Z</time>
      </trkpt>
      <trkpt lat="35.274480" lon="-112.763550">
        <ele>1750.520</ele>
        <time>2018-12-29T09:08:16Z</time>
      </trkpt>
      <trkpt lat="35.274690" lon="-112.764320">
        <ele>1750.584</ele>
        <time>2018-12-29T09:08:36Z</time>
      </trkpt>
      <trkpt lat="35.274920" lon="-112.765110">
        <ele>1750.517</ele>
        <time>2018-12-29T09:08:56Z</time>
      </trkpt>
      <trkpt lat="35.275280" lon="-112.766360">
        <ele>1747.087</ele>
        <time>2018-12-29T09:09:16Z</time>
      </trkpt>
      <trkpt lat="35.275690" lon="-112.767800">
        <ele>1745.815</ele>
        <time>2018-12-29T09:09:36Z</time>
      </trkpt>
      <trkpt lat="35.275980" lon="-112.768830">
        <ele>1745.908</ele>
        <time>2018-12-29T09:09:56Z</time>
      </trkpt>
      <trkpt lat="35.276530" lon="-112.770780">
        <ele>1744.844</ele>
        <time>2018-12-29T09:10:16Z</time>
      </trkpt>
      <trkpt lat="35.277110" lon="-112.772780">
        <ele>1744.472</ele>
        <time>2018-12-29T09:10:36Z</time>
      </trkpt>
      <trkpt lat="35.277430" lon="-112.773930">
        <ele>1746.477</ele>
        <time>2018-12-29T09:10:56Z</time>
      </trkpt>
      <trkpt lat="35.277740" lon="-112.775010">
        <ele>1747.478</ele>
        <time>2018-12-29T09:11:16Z</time>
      </trkpt>
      <trkpt lat="35.277990" lon="-112.775900">
        <ele>1747.463</ele>
        <time>2018-12-29T09:11:36Z</time>
      </trkpt>
      <trkpt lat="35.278610" lon="-112.778080">
        <ele>1745.323</ele>
        <time>2018-12-29T09:11:56Z</time>
      </trkpt>
      <trkpt lat="35.278830" lon="-112.778830">
        <ele>1744.725</ele>
        <time>2018-12-29T09:12:16Z</time>
      </trkpt>
      <trkpt lat="35.279310" lon="-112.780520">
        <ele>1739.759</ele>
        <time>2018-12-29T09:12:36Z</time>
      </trkpt>
      <trkpt lat="35.279420" lon="-112.780900">
        <ele>1738.142</ele>
        <time>2018-12-29T09:12:56Z</time>
      </trkpt>
      <trkpt lat="35.279960" lon="-112.782780">
        <ele>1732.722</ele>
        <time>2018-12-29T09:13:16Z</time>
      </trkpt>
      <trkpt lat="35.280290" lon="-112.783960">
        <ele>1730.114</ele>
        <time>2018-12-29T09:13:36Z</time>
      </trkpt>
      <trkpt lat="35.280630" lon="-112.785120">
        <ele>1724.408</ele>
        <time>2018-12-29T09:13:56Z</time>
      </trkpt>
      <trkpt lat="35.280880" lon="-112.786040">
        <ele>1720.367</ele>
        <time>2018-12-29T09:14:16Z</time>
      </trkpt>
      <trkpt lat="35.281350" lon="-112.787730">
        <ele>1713.165</ele>
        <time>2018-12-29T09:14:36Z</time>
      </trkpt>
      <trkpt lat="35.281680" lon="-112.788880">
        <ele>1708.080</ele>
        <time>2018-12-29T09:14:56Z</time>
      </trkpt>
      <trkpt lat="35.281860" lon="-112.789530">
        <ele>1704.251</ele>
        <time>2018-12-29T09:15:16Z</time>
      </trkpt>
      <trkpt lat="35.282250" lon="-112.790910">
        <ele>1699.686</ele>
        <time>2018-12-29T09:15:36Z</time>
      </trkpt>
      <trkpt lat="35.282890" lon="-112.793170">
        <ele>1691.756</ele>
        <time>2018-12-29T09:15:56Z</time>
      </trkpt>
      <trkpt lat="35.283270" lon="-112.794490">
        <ele>1689.738</ele>
        <time>2018-12-29T09:16:16Z</time>
      </trkpt>
      <trkpt lat="35.283510" lon="-112.795340">
        <ele>1686.422</ele>
        <time>2018-12-29T09:16:36Z</time>
      </trkpt>
      <trkpt lat="35.284100" lon="-112.797390">
        <ele>1684.612</ele>
        <time>2018-12-29T09:16:56Z</time>
      </trkpt>
      <trkpt lat="35.284290" lon="-112.798080">
        <ele>1683.732</ele>
        <time>2018-12-29T09:17:16Z</time>
      </trkpt>
      <trkpt lat="35.284510" lon="-112.798870">
        <ele>1681.105</ele>
        <time>2018-12-29T09:17:36Z</time>
      </trkpt>
      <trkpt lat="35.284790" lon="-112.799830">
        <ele>1677.708</ele>
        <time>2018-12-29T09:17:56Z</time>
      </trkpt>
      <trkpt lat="35.284880" lon="-112.800140">
        <ele>1677.994</ele>
        <time>2018-12-29T09:18:16Z</time>
      </trkpt>
      <trkpt lat="35.285010" lon="-112.800620">
        <ele>1676.672</ele>
        <time>2018-12-29T09:18:36Z</time>
      </trkpt>
      <trkpt lat="35.285260" lon="-112.801500">
        <ele>1673.417</ele>
        <time>2018-12-29T09:18:56Z</time>
      </trkpt>
      <trkpt lat="35.285350" lon="-112.801810">
        <ele>1672.478</ele>
        <time>2018-12-29T09:19:16Z</time>
      </trkpt>
      <trkpt lat="35.285710" lon="-112.803070">
        <ele>1672.153</ele>
        <time>2018-12-29T09:19:36Z</time>
      </trkpt>
      <trkpt lat="35.286120" lon="-112.804520">
        <ele>1669.793</ele>
        <time>2018-12-29T09:19:56Z</time>
      </trkpt>
      <trkpt lat="35.286410" lon="-112.805540">
        <ele>1666.455</ele>
        <time>2018-12-29T09:20:16Z</time>
      </trkpt>
      <trkpt lat="35.287010" lon="-112.807610">
        <ele>1660.269</ele>
        <time>2018-12-29T09:20:36Z</time>
      </trkpt>
      <trkpt lat="35.287320" lon="-112.808650">
        <ele>1660.659</ele>
        <time>2018-12-29T09:20:56Z</time>
      </trkpt>
      <trkpt lat="35.287500" lon="-112.809270">
        <ele>1660.903</ele>
        <time>2018-12-29T09:21:16Z</time>
      </trkpt>
      <trkpt lat="35.287750" lon="-112.810150">
        <ele>1660.923</ele>
        <time>2018-12-29T09:21:36Z</time>
      </trkpt>
      <trkpt lat="35.287790" lon="-112.810290">
        <ele>1660.808</ele>
        <time>2018-12-29T09:21:56Z</time>
      </trkpt>
      <trkpt lat="35.288320" lon="-112.812100">
        <ele>1656.928</ele>
        <time>2018-12-29T09:22:16Z</time>
      </trkpt>
      <trkpt lat="35.288510" lon="-112.812740">
        <ele>1656.366</ele>
        <time>2018-12-29T09:22:36Z</time>
      </trkpt>
      <trkpt lat="35.288660" lon="-112.813230">
        <ele>1656.131</ele>
        <time>2018-12-29T09:22:56Z</time>
      </trkpt>
      <trkpt lat="35.288950" lon="-112.814180">
        <ele>1655.822</ele>
        <time>2018-12-29T09:23:16Z</time>
      </trkpt>
      <trkpt lat="35.289080" lon="-112.814600">
        <ele>1655.847</ele>
        <time>2018-12-29T09:23:36Z</time>
      </trkpt>
      <trkpt lat="35.289360" lon="-112.815410">
        <ele>1655.837</ele>
        <time>2018-12-29T09:23:56Z</time>
      </trkpt>
      <trkpt lat="35.289540" lon="-112.815970">
        <ele>1655.379</ele>
        <time>2018-12-29T09:24:16Z</time>
      </trkpt>
      <trkpt lat="35.289740" lon="-112.816560">
        <ele>1654.913</ele>
        <time>2018-12-29T09:24:36Z</time>
      </trkpt>
      <trkpt lat="35.290020" lon="-112.817340">
        <ele>1654.465</ele>
        <time>2018-12-29T09:24:56Z</time>
      </trkpt>
      <trkpt lat="35.290500" lon="-112.818660">
        <ele>1657.168</ele>
        <time>2018-12-29T09:25:16Z</time>
      </trkpt>
      <trkpt lat="35.290920" lon="-112.819760">
        <ele>1656.114</ele>
        <time>2018-12-29T09:25:36Z</time>
      </trkpt>
      <trkpt lat="35.291210" lon="-112.820500">
        <ele>1652.908</ele>
        <time>2018-12-29T09:25:56Z</time>
      </trkpt>
      <trkpt lat="35.291470" lon="-112.821160">
        <ele>1650.769</ele>
        <time>2018-12-29T09:26:16Z</time>
      </trkpt>
      <trkpt lat="35.291620" lon="-112.821530">
        <ele>1649.587</ele>
        <time>2018-12-29T09:26:36Z</time>
      </trkpt>
      <trkpt lat="35.291820" lon="-112.822010">
        <ele>1649.122</ele>
        <time>2018-12-29T09:26:56Z</time>
      </trkpt>
      <trkpt lat="35.292180" lon="-112.822820">
        <ele>1648.133</ele>
        <time>2018-12-29T09:27:16Z</time>
      </trkpt>
      <trkpt lat="35.292470" lon="-112.823500">
        <ele>1646.578</ele>
        <time>2018-12-29T09:27:36Z</time>
      </trkpt>
      <trkpt lat="35.292640" lon="-112.823880">
        <ele>1644.588</ele>
        <time>2018-12-29T09:27:56Z</time>
      </trkpt>
      <trkpt lat="35.292930" lon="-112.824490">
        <ele>1641.930</ele>
        <time>2018-12-29T09:28:16Z</time>
      </trkpt>
      <trkpt lat="35.293080" lon="-112.824800">
        <ele>1640.954</ele>
        <time>2018-12-29T09:28:36Z</time>
      </trkpt>
      <trkpt lat="35.293260" lon="-112.825200">
        <ele>1638.972</ele>
        <time>2018-12-29T09:28:56Z</time>
      </trkpt>
      <trkpt lat="35.293430" lon="-112.825550">
        <ele>1635.213</ele>
        <time>2018-12-29T09:29:16Z</time>
      </trkpt>
      <trkpt lat="35.293720" lon="-112.826140">
        <ele>1631.614</ele>
        <time>2018-12-29T09:29:36Z</time>
      </trkpt>
      <trkpt lat="35.293860" lon="-112.826440">
        <ele>1630.008</ele>
        <time>2018-12-29T09:29:56Z</time>
      </trkpt>
      <trkpt lat="35.294400" lon="-112.827490">
        <ele>1627.110</ele>
        <time>2018-12-29T09:30:16Z</time>
      </trkpt>
      <trkpt lat="35.294700" lon="-112.828070">
        <ele>1624.348</ele>
        <time>2018-12-29T09:30:36Z</time>
      </trkpt>
      <trkpt lat="35.295400" lon="-112.829360">
        <ele>1620.353</ele>
        <time>2018-12-29T09:30:56Z</time>
      </trkpt>
      <trkpt lat="35.296020" lon="-112.830490">
        <ele>1615.494</ele>
        <time>2018-12-29T09:31:16Z</time>
      </trkpt>
      <trkpt lat="35.296500" lon="-112.831320">
        <ele>1610.599</ele>
        <time>2018-12-29T09:31:36Z</time>
      </trkpt>
      <trkpt lat="35.297460" lon="-112.832970">
        <ele>1604.799</ele>
        <time>2018-12-29T09:31:56Z</time>
      </trkpt>
      <trkpt lat="35.299280" lon="-112.836170">
        <ele>1604.361</ele>
        <time>2018-12-29T09:32:16Z</time>
      </trkpt>
      <trkpt lat="35.299930" lon="-112.837300">
        <ele>1604.365</ele>
        <time>2018-12-29T09:32:36Z</time>
      </trkpt>
      <trkpt lat="35.300350" lon="-112.838040">
        <ele>1604.218</ele>
        <time>2018-12-29T09:32:56Z</time>
      </trkpt>
      <trkpt lat="35.301040" lon="-112.839240">
        <ele>1604.398</ele>
        <time>2018-12-29T09:33:16Z</time>
      </trkpt>
      <trkpt lat="35.301270" lon="-112.839640">
        <ele>1604.417</ele>
        <time>2018-12-29T09:33:36Z</time>
      </trkpt>
      <trkpt lat="35.302160" lon="-112.841180">
        <ele>1609.108</ele>
        <time>2018-12-29T09:33:56Z</time>
      </trkpt>
      <trkpt lat="35.302780" lon="-112.842270">
        <ele>1609.774</ele>
        <time>2018-12-29T09:34:16Z</time>
      </trkpt>
      <trkpt lat="35.303060" lon="-112.842770">
        <ele>1609.642</ele>
        <time>2018-12-29T09:34:36Z</time>
      </trkpt>
      <trkpt lat="35.303500" lon="-112.843530">
        <ele>1608.327</ele>
        <time>2018-12-29T09:34:56Z</time>
      </trkpt>
      <trkpt lat="35.303820" lon="-112.844080">
        <ele>1604.448</ele>
        <time>2018-12-29T09:35:16Z</time>
      </trkpt>
      <trkpt lat="35.303920" lon="-112.844250">
        <ele>1604.163</ele>
        <time>2018-12-29T09:35:36Z</time>
      </trkpt>
      <trkpt lat="35.304040" lon="-112.844470">
        <ele>1603.783</ele>
        <time>2018-12-29T09:35:56Z</time>
      </trkpt>
      <trkpt lat="35.304200" lon="-112.844760">
        <ele>1603.265</ele>
        <time>2018-12-29T09:36:16Z</time>
      </trkpt>
      <trkpt lat="35.304550" lon="-112.845350">
        <ele>1600.799</ele>
        <time>2018-12-29T09:36:36Z</time>
      </trkpt>
      <trkpt lat="35.305500" lon="-112.847020">
        <ele>1598.112</ele>
        <time>2018-12-29T09:36:56Z</time>
      </trkpt>
      <trkpt lat="35.305860" lon="-112.847640">
        <ele>1598.132</ele>
        <time>2018-12-29T09:37:16Z</time>
      </trkpt>
      <trkpt lat="35.306170" lon="-112.848190">
        <ele>1598.005</ele>
        <time>2018-12-29T09:37:36Z</time>
      </trkpt>
      <trkpt lat="35.306470" lon="-112.848760">
        <ele>1598.308</ele>
        <time>2018-12-29T09:37:56Z</time>
      </trkpt>
      <trkpt lat="35.306840" lon="-112.849390">
        <ele>1599.724</ele>
        <time>2018-12-29T09:38:16Z</time>
      </trkpt>
      <trkpt lat="35.307090" lon="-112.849830">
        <ele>1602.152</ele>
        <time>2018-12-29T09:38:36Z</time>
      </trkpt>
      <trkpt lat="35.307290" lon="-112.850190">
        <ele>1603.067</ele>
        <time>2018-12-29T09:38:56Z</time>
      </trkpt>
      <trkpt lat="35.307520" lon="-112.850580">
        <ele>1603.488</ele>
        <time>2018-12-29T09:39:16Z</time>
      </trkpt>
      <trkpt lat="35.307750" lon="-112.850980">
        <ele>1603.773</ele>
        <time>2018-12-29T09:39:36Z</time>
      </trkpt>
      <trkpt lat="35.307960" lon="-112.851360">
        <ele>1603.933</ele>
        <time>2018-12-29T09:39:56Z</time>
      </trkpt>
      <trkpt lat="35.308090" lon="-112.851580">
        <ele>1604.075</ele>
        <time>2018-12-29T09:40:16Z</time>
      </trkpt>
      <trkpt lat="35.308310" lon="-112.851960">
        <ele>1604.079</ele>
        <time>2018-12-29T09:40:36Z</time>
      </trkpt>
      <trkpt lat="35.308610" lon="-112.852500">
        <ele>1603.929</ele>
        <time>2018-12-29T09:40:56Z</time>
      </trkpt>
      <trkpt lat="35.308810" lon="-112.852830">
        <ele>1603.600</ele>
        <time>2018-12-29T09:41:16Z</time>
      </trkpt>
      <trkpt lat="35.309100" lon="-112.853340">
        <ele>1603.020</ele>
        <time>2018-12-29T09:41:36Z</time>
      </trkpt>
      <trkpt lat="35.309480" lon="-112.854000">
        <ele>1601.808</ele>
        <time>2018-12-29T09:41:56Z</time>
      </trkpt>
      <trkpt lat="35.309980" lon="-112.854890">
        <ele>1600.145</ele>
        <time>2018-12-29T09:42:16Z</time>
      </trkpt>
      <trkpt lat="35.310360" lon="-112.855540">
        <ele>1598.813</ele>
        <time>2018-12-29T09:42:36Z</time>
      </trkpt>
      <trkpt lat="35.310460" lon="-112.855710">
        <ele>1598.458</ele>
        <time>2018-12-29T09:42:56Z</time>
      </trkpt>
      <trkpt lat="35.310560" lon="-112.855870">
        <ele>1599.059</ele>
        <time>2018-12-29T09:43:16Z</time>
      </trkpt>
      <trkpt lat="35.310970" lon="-112.856620">
        <ele>1600.244</ele>
        <time>2018-12-29T09:43:36Z</time>
      </trkpt>
      <trkpt lat="35.311240" lon="-112.857080">
        <ele>1601.184</ele>
        <time>2018-12-29T09:43:56Z</time>
      </trkpt>
      <trkpt lat="35.311480" lon="-112.857510">
        <ele>1601.726</ele>
        <time>2018-12-29T09:44:16Z</time>
      </trkpt>
      <trkpt lat="35.311800" lon="-112.858090">
        <ele>1601.680</ele>
        <time>2018-12-29T09:44:36Z</time>
      </trkpt>
      <trkpt lat="35.311970" lon="-112.858420">
        <ele>1601.232</ele>
        <time>2018-12-29T09:44:56Z</time>
      </trkpt>
      <trkpt lat="35.312200" lon="-112.858860">
        <ele>1600.892</ele>
        <time>2018-12-29T09:45:16Z</time>
      </trkpt>
      <trkpt lat="35.312290" lon="-112.859050">
        <ele>1600.611</ele>
        <time>2018-12-29T09:45:36Z</time>
      </trkpt>
      <trkpt lat="35.312370" lon="-112.859220">
        <ele>1600.408</ele>
        <time>2018-12-29T09:45:56Z</time>
      </trkpt>
      <trkpt lat="35.312500" lon="-112.859470">
        <ele>1600.296</ele>
        <time>2018-12-29T09:46:16Z</time>
      </trkpt>
      <trkpt lat="35.312930" lon="-112.860380">
        <ele>1598.534</ele>
        <time>2018-12-29T09:46:36Z</time>
      </trkpt>
      <trkpt lat="35.313260" lon="-112.861120">
        <ele>1597.769</ele>
        <time>2018-12-29T09:46:56Z</time>
      </trkpt>
      <trkpt lat="35.313390" lon="-112.861440">
        <ele>1597.250</ele>
        <time>2018-12-29T09:47:16Z</time>
      </trkpt>
      <trkpt lat="35.313510" lon="-112.861720">
        <ele>1596.945</ele>
        <time>2018-12-29T09:47:36Z</time>
      </trkpt>
      <trkpt lat="35.313690" lon="-112.862180">
        <ele>1596.435</ele>
        <time>2018-12-29T09:47:56Z</time>
      </trkpt>
      <trkpt lat="35.313900" lon="-112.862710">
        <ele>1596.067</ele>
        <time>2018-12-29T09:48:16Z</time>
      </trkpt>
      <trkpt lat="35.314020" lon="-112.863020">
        <ele>1595.741</ele>
        <time>2018-12-29T09:48:36Z</time>
      </trkpt>
      <trkpt lat="35.314260" lon="-112.863680">
        <ele>1595.524</ele>
        <time>2018-12-29T09:48:56Z</time>
      </trkpt>
      <trkpt lat="35.314490" lon="-112.864360">
        <ele>1595.204</ele>
        <time>2018-12-29T09:49:16Z</time>
      </trkpt>
      <trkpt lat="35.314620" lon="-112.864730">
        <ele>1594.514</ele>
        <time>2018-12-29T09:49:36Z</time>
      </trkpt>
      <trkpt lat="35.314730" lon="-112.865070">
        <ele>1593.608</ele>
        <time>2018-12-29T09:49:56Z</time>
      </trkpt>
      <trkpt lat="35.314820" lon="-112.865330">
        <ele>1593.655</ele>
        <time>2018-12-29T09:50:16Z</time>
      </trkpt>
      <trkpt lat="35.314870" lon="-112.865500">
        <ele>1593.733</ele>
        <time>2018-12-29T09:50:36Z</time>
      </trkpt>
      <trkpt lat="35.314940" lon="-112.865720">
        <ele>1593.898</ele>
        <time>2018-12-29T09:50:56Z</time>
      </trkpt>
      <trkpt lat="35.315010" lon="-112.865940">
        <ele>1593.969</ele>
        <time>2018-12-29T09:51:16Z</time>
      </trkpt>
      <trkpt lat="35.315160" lon="-112.866470">
        <ele>1594.354</ele>
        <time>2018-12-29T09:51:36Z</time>
      </trkpt>
      <trkpt lat="35.315270" lon="-112.866890">
        <ele>1594.534</ele>
        <time>2018-12-29T09:51:56Z</time>
      </trkpt>
      <trkpt lat="35.315390" lon="-112.867350">
        <ele>1594.746</ele>
        <time>2018-12-29T09:52:16Z</time>
      </trkpt>
      <trkpt lat="35.315540" lon="-112.867910">
        <ele>1594.840</ele>
        <time>2018-12-29T09:52:36Z</time>
      </trkpt>
      <trkpt lat="35.315810" lon="-112.869050">
        <ele>1594.845</ele>
        <time>2018-12-29T09:52:56Z</time>
      </trkpt>
      <trkpt lat="35.315910" lon="-112.869520">
        <ele>1594.847</ele>
        <time>2018-12-29T09:53:16Z</time>
      </trkpt>
      <trkpt lat="35.316040" lon="-112.870230">
        <ele>1594.911</ele>
        <time>2018-12-29T09:53:36Z</time>
      </trkpt>
      <trkpt lat="35.316480" lon="-112.872570">
        <ele>1594.508</ele>
        <time>2018-12-29T09:53:56Z</time>
      </trkpt>
      <trkpt lat="35.316870" lon="-112.874590">
        <ele>1593.997</ele>
        <time>2018-12-29T09:54:16Z</time>
      </trkpt>
      <trkpt lat="35.317160" lon="-112.876100">
        <ele>1593.745</ele>
        <time>2018-12-29T09:54:36Z</time>
      </trkpt>
      <trkpt lat="35.318160" lon="-112.881390">
        <ele>1600.340</ele>
        <time>2018-12-29T09:54:56Z</time>
      </trkpt>
      <trkpt lat="35.318850" lon="-112.885010">
        <ele>1604.961</ele>
        <time>2018-12-29T09:55:16Z</time>
      </trkpt>
      <trkpt lat="35.319140" lon="-112.886550">
        <ele>1605.676</ele>
        <time>2018-12-29T09:55:36Z</time>
      </trkpt>
      <trkpt lat="35.319350" lon="-112.887660">
        <ele>1606.326</ele>
        <time>2018-12-29T09:55:56Z</time>
      </trkpt>
      <trkpt lat="35.319370" lon="-112.887800">
        <ele>1606.478</ele>
        <time>2018-12-29T09:56:16Z</time>
      </trkpt>
      <trkpt lat="35.319530" lon="-112.888640">
        <ele>1605.972</ele>
        <time>2018-12-29T09:56:36Z</time>
      </trkpt>
      <trkpt lat="35.319940" lon="-112.890840">
        <ele>1602.556</ele>
        <time>2018-12-29T09:56:56Z</time>
      </trkpt>
      <trkpt lat="35.320110" lon="-112.891800">
        <ele>1601.759</ele>
        <time>2018-12-29T09:57:16Z</time>
      </trkpt>
      <trkpt lat="35.320640" lon="-112.894560">
        <ele>1595.714</ele>
        <time>2018-12-29T09:57:36Z</time>
      </trkpt>
      <trkpt lat="35.320830" lon="-112.895520">
        <ele>1593.408</ele>
        <time>2018-12-29T09:57:56Z</time>
      </trkpt>
      <trkpt lat="35.320930" lon="-112.896060">
        <ele>1592.468</ele>
        <time>2018-12-29T09:58:16Z</time>
      </trkpt>
      <trkpt lat="35.321040" lon="-112.896640">
        <ele>1591.986</ele>
        <time>2018-12-29T09:58:36Z</time>
      </trkpt>
      <trkpt lat="35.321110" lon="-112.896970">
        <ele>1591.911</ele>
        <time>2018-12-29T09:58:56Z</time>
      </trkpt>
      <trkpt lat="35.321150" lon="-112.897230">
        <ele>1592.052</ele>
        <time>2018-12-29T09:59:16Z</time>
      </trkpt>
      <trkpt lat="35.321300" lon="-112.898050">
        <ele>1591.857</ele>
        <time>2018-12-29T09:59:36Z</time>
      </trkpt>
      <trkpt lat="35.321360" lon="-112.898340">
        <ele>1591.977</ele>
        <time>2018-12-29T09:59:56Z</time>
      </trkpt>
      <trkpt lat="35.321430" lon="-112.898720">
        <ele>1592.059</ele>
        <time>2018-12-29T10:00:16Z</time>
      </trkpt>
      <trkpt lat="35.321500" lon="-112.899120">
        <ele>1591.973</ele>
        <time>2018-12-29T10:00:36Z</time>
      </trkpt>
      <trkpt lat="35.321630" lon="-112.899790">
        <ele>1590.022</ele>
        <time>2018-12-29T10:00:56Z</time>
      </trkpt>
      <trkpt lat="35.321660" lon="-112.900000">
        <ele>1589.562</ele>
        <time>2018-12-29T10:01:16Z</time>
      </trkpt>
      <trkpt lat="35.321690" lon="-112.900200">
        <ele>1589.108</ele>
        <time>2018-12-29T10:01:36Z</time>
      </trkpt>
      <trkpt lat="35.321750" lon="-112.900560">
        <ele>1588.508</ele>
        <time>2018-12-29T10:01:56Z</time>
      </trkpt>
      <trkpt lat="35.321790" lon="-112.900820">
        <ele>1588.395</ele>
        <time>2018-12-29T10:02:16Z</time>
      </trkpt>
      <trkpt lat="35.321830" lon="-112.901150">
        <ele>1588.223</ele>
        <time>2018-12-29T10:02:36Z</time>
      </trkpt>
      <trkpt lat="35.321880" lon="-112.901490">
        <ele>1587.978</ele>
        <time>2018-12-29T10:02:56Z</time>
      </trkpt>
      <trkpt lat="35.321910" lon="-112.901760">
        <ele>1587.889</ele>
        <time>2018-12-29T10:03:16Z</time>
      </trkpt>
      <trkpt lat="35.322030" lon="-112.902680">
        <ele>1587.184</ele>
        <time>2018-12-29T10:03:36Z</time>
      </trkpt>
      <trkpt lat="35.322200" lon="-112.904090">
        <ele>1585.594</ele>
        <time>2018-12-29T10:03:56Z</time>
      </trkpt>
      <trkpt lat="35.322270" lon="-112.904740">
        <ele>1583.766</ele>
        <time>2018-12-29T10:04:16Z</time>
      </trkpt>
      <trkpt lat="35.322330" lon="-112.905310">
        <ele>1581.260</ele>
        <time>2018-12-29T10:04:36Z</time>
      </trkpt>
      <trkpt lat="35.322460" lon="-112.906640">
        <ele>1579.977</ele>
        <time>2018-12-29T10:04:56Z</time>
      </trkpt>
      <trkpt lat="35.322530" lon="-112.907360">
        <ele>1580.161</ele>
        <time>2018-12-29T10:05:16Z</time>
      </trkpt>
      <trkpt lat="35.322570" lon="-112.907770">
        <ele>1580.127</ele>
        <time>2018-12-29T10:05:36Z</time>
      </trkpt>
      <trkpt lat="35.322610" lon="-112.908280">
        <ele>1580.208</ele>
        <time>2018-12-29T10:05:56Z</time>
      </trkpt>
      <trkpt lat="35.322650" lon="-112.908700">
        <ele>1580.870</ele>
        <time>2018-12-29T10:06:16Z</time>
      </trkpt>
      <trkpt lat="35.322690" lon="-112.909210">
        <ele>1583.378</ele>
        <time>2018-12-29T10:06:36Z</time>
      </trkpt>
      <trkpt lat="35.322800" lon="-112.910830">
        <ele>1586.873</ele>
        <time>2018-12-29T10:06:56Z</time>
      </trkpt>
      <trkpt lat="35.322870" lon="-112.911920">
        <ele>1589.844</ele>
        <time>2018-12-29T10:07:16Z</time>
      </trkpt>
      <trkpt lat="35.322910" lon="-112.912680">
        <ele>1590.969</ele>
        <time>2018-12-29T10:07:36Z</time>
      </trkpt>
      <trkpt lat="35.322940" lon="-112.913360">
        <ele>1591.659</ele>
        <time>2018-12-29T10:07:56Z</time>
      </trkpt>
      <trkpt lat="35.322970" lon="-112.913960">
        <ele>1592.031</ele>
        <time>2018-12-29T10:08:16Z</time>
      </trkpt>
      <trkpt lat="35.322990" lon="-112.914360">
        <ele>1592.725</ele>
        <time>2018-12-29T10:08:36Z</time>
      </trkpt>
      <trkpt lat="35.323020" lon="-112.915060">
        <ele>1594.615</ele>
        <time>2018-12-29T10:08:56Z</time>
      </trkpt>
      <trkpt lat="35.323060" lon="-112.916560">
        <ele>1593.865</ele>
        <time>2018-12-29T10:09:16Z</time>
      </trkpt>
      <trkpt lat="35.323090" lon="-112.917810">
        <ele>1592.011</ele>
        <time>2018-12-29T10:09:36Z</time>
      </trkpt>
      <trkpt lat="35.323100" lon="-112.918380">
        <ele>1590.208</ele>
        <time>2018-12-29T10:09:56Z</time>
      </trkpt>
      <trkpt lat="35.323100" lon="-112.918690">
        <ele>1587.764</ele>
        <time>2018-12-29T10:10:16Z</time>
      </trkpt>
      <trkpt lat="35.323100" lon="-112.919260">
        <ele>1586.192</ele>
        <time>2018-12-29T10:10:36Z</time>
      </trkpt>
      <trkpt lat="35.323100" lon="-112.919610">
        <ele>1586.887</ele>
        <time>2018-12-29T10:10:56Z</time>
      </trkpt>
      <trkpt lat="35.323100" lon="-112.920570">
        <ele>1587.868</ele>
        <time>2018-12-29T10:11:16Z</time>
      </trkpt>
      <trkpt lat="35.323100" lon="-112.921210">
        <ele>1585.653</ele>
        <time>2018-12-29T10:11:36Z</time>
      </trkpt>
      <trkpt lat="35.323090" lon="-112.922400">
        <ele>1579.723</ele>
        <time>2018-12-29T10:11:56Z</time>
      </trkpt>
      <trkpt lat="35.323080" lon="-112.922810">
        <ele>1579.785</ele>
        <time>2018-12-29T10:12:16Z</time>
      </trkpt>
      <trkpt lat="35.323050" lon="-112.924020">
        <ele>1583.349</ele>
        <time>2018-12-29T10:12:36Z</time>
      </trkpt>
      <trkpt lat="35.323010" lon="-112.925040">
        <ele>1591.969</ele>
        <time>2018-12-29T10:12:56Z</time>
      </trkpt>
      <trkpt lat="35.322970" lon="-112.926190">
        <ele>1592.004</ele>
        <time>2018-12-29T10:13:16Z</time>
      </trkpt>
      <trkpt lat="35.322930" lon="-112.927110">
        <ele>1593.024</ele>
        <time>2018-12-29T10:13:36Z</time>
      </trkpt>
      <trkpt lat="35.322820" lon="-112.928970">
        <ele>1592.108</ele>
        <time>2018-12-29T10:13:56Z</time>
      </trkpt>
      <trkpt lat="35.322770" lon="-112.929640">
        <ele>1592.059</ele>
        <time>2018-12-29T10:14:16Z</time>
      </trkpt>
      <trkpt lat="35.322740" lon="-112.930170">
        <ele>1592.217</ele>
        <time>2018-12-29T10:14:36Z</time>
      </trkpt>
      <trkpt lat="35.322660" lon="-112.931240">
        <ele>1592.382</ele>
        <time>2018-12-29T10:14:56Z</time>
      </trkpt>
      <trkpt lat="35.322600" lon="-112.931950">
        <ele>1592.143</ele>
        <time>2018-12-29T10:15:16Z</time>
      </trkpt>
      <trkpt lat="35.322560" lon="-112.932420">
        <ele>1591.978</ele>
        <time>2018-12-29T10:15:36Z</time>
      </trkpt>
      <trkpt lat="35.322430" lon="-112.933760">
        <ele>1591.958</ele>
        <time>2018-12-29T10:15:56Z</time>
      </trkpt>
      <trkpt lat="35.322320" lon="-112.934840">
        <ele>1594.580</ele>
        <time>2018-12-29T10:16:16Z</time>
      </trkpt>
      <trkpt lat="35.322240" lon="-112.935620">
        <ele>1595.414</ele>
        <time>2018-12-29T10:16:36Z</time>
      </trkpt>
      <trkpt lat="35.322160" lon="-112.936290">
        <ele>1594.359</ele>
        <time>2018-12-29T10:16:56Z</time>
      </trkpt>
      <trkpt lat="35.322030" lon="-112.937360">
        <ele>1592.003</ele>
        <time>2018-12-29T10:17:16Z</time>
      </trkpt>
      <trkpt lat="35.321930" lon="-112.938180">
        <ele>1591.823</ele>
        <time>2018-12-29T10:17:36Z</time>
      </trkpt>
      <trkpt lat="35.321790" lon="-112.939210">
        <ele>1591.908</ele>
        <time>2018-12-29T10:17:56Z</time>
      </trkpt>
      <trkpt lat="35.321700" lon="-112.939870">
        <ele>1591.898</ele>
        <time>2018-12-29T10:18:16Z</time>
      </trkpt>
      <trkpt lat="35.321650" lon="-112.940220">
        <ele>1591.876</ele>
        <time>2018-12-29T10:18:36Z</time>
      </trkpt>
      <trkpt lat="35.321600" lon="-112.940520">
        <ele>1592.061</ele>
        <time>2018-12-29T10:18:56Z</time>
      </trkpt>
      <trkpt lat="35.321490" lon="-112.941280">
        <ele>1592.482</ele>
        <time>2018-12-29T10:19:16Z</time>
      </trkpt>
      <trkpt lat="35.321430" lon="-112.941640">
        <ele>1592.087</ele>
        <time>2018-12-29T10:19:36Z</time>
      </trkpt>
      <trkpt lat="35.321390" lon="-112.941950">
        <ele>1591.967</ele>
        <time>2018-12-29T10:19:56Z</time>
      </trkpt>
      <trkpt lat="35.321300" lon="-112.942490">
        <ele>1592.049</ele>
        <time>2018-12-29T10:20:16Z</time>
      </trkpt>
      <trkpt lat="35.321240" lon="-112.942850">
        <ele>1592.033</ele>
        <time>2018-12-29T10:20:36Z</time>
      </trkpt>
      <trkpt lat="35.321190" lon="-112.943140">
        <ele>1591.993</ele>
        <time>2018-12-29T10:20:56Z</time>
      </trkpt>
      <trkpt lat="35.321040" lon="-112.944040">
        <ele>1592.265</ele>
        <time>2018-12-29T10:21:16Z</time>
      </trkpt>
      <trkpt lat="35.320960" lon="-112.944470">
        <ele>1592.721</ele>
        <time>2018-12-29T10:21:36Z</time>
      </trkpt>
      <trkpt lat="35.320890" lon="-112.944840">
        <ele>1593.008</ele>
        <time>2018-12-29T10:21:56Z</time>
      </trkpt>
      <trkpt lat="35.320820" lon="-112.945240">
        <ele>1594.322</ele>
        <time>2018-12-29T10:22:16Z</time>
      </trkpt>
      <trkpt lat="35.320780" lon="-112.945490">
        <ele>1595.190</ele>
        <time>2018-12-29T10:22:36Z</time>
      </trkpt>
      <trkpt lat="35.320560" lon="-112.946640">
        <ele>1597.375</ele>
        <time>2018-12-29T10:22:56Z</time>
      </trkpt>
      <trkpt lat="35.320370" lon="-112.947590">
        <ele>1598.066</ele>
        <time>2018-12-29T10:23:16Z</time>
      </trkpt>
      <trkpt lat="35.320270" lon="-112.948090">
        <ele>1598.131</ele>
        <time>2018-12-29T10:23:36Z</time>
      </trkpt>
      <trkpt lat="35.319830" lon="-112.950150">
        <ele>1598.041</ele>
        <time>2018-12-29T10:23:56Z</time>
      </trkpt>
      <trkpt lat="35.319540" lon="-112.951450">
        <ele>1596.163</ele>
        <time>2018-12-29T10:24:16Z</time>
      </trkpt>
      <trkpt lat="35.319380" lon="-112.952090">
        <ele>1593.647</ele>
        <time>2018-12-29T10:24:36Z</time>
      </trkpt>
      <trkpt lat="35.319290" lon="-112.952500">
        <ele>1592.452</ele>
        <time>2018-12-29T10:24:56Z</time>
      </trkpt>
      <trkpt lat="35.319070" lon="-112.953390">
        <ele>1592.153</ele>
        <time>2018-12-29T10:25:16Z</time>
      </trkpt>
      <trkpt lat="35.318850" lon="-112.954280">
        <ele>1591.808</ele>
        <time>2018-12-29T10:25:36Z</time>
      </trkpt>
      <trkpt lat="35.318680" lon="-112.954940">
        <ele>1590.908</ele>
        <time>2018-12-29T10:25:56Z</time>
      </trkpt>
      <trkpt lat="35.318570" lon="-112.955370">
        <ele>1589.568</ele>
        <time>2018-12-29T10:26:16Z</time>
      </trkpt>
      <trkpt lat="35.318160" lon="-112.956870">
        <ele>1589.816</ele>
        <time>2018-12-29T10:26:36Z</time>
      </trkpt>
      <trkpt lat="35.317950" lon="-112.957630">
        <ele>1589.051</ele>
        <time>2018-12-29T10:26:56Z</time>
      </trkpt>
      <trkpt lat="35.317780" lon="-112.958230">
        <ele>1588.672</ele>
        <time>2018-12-29T10:27:16Z</time>
      </trkpt>
      <trkpt lat="35.317480" lon="-112.959250">
        <ele>1587.867</ele>
        <time>2018-12-29T10:27:36Z</time>
      </trkpt>
      <trkpt lat="35.317380" lon="-112.959570">
        <ele>1587.417</ele>
        <time>2018-12-29T10:27:56Z</time>
      </trkpt>
      <trkpt lat="35.317290" lon="-112.959890">
        <ele>1587.249</ele>
        <time>2018-12-29T10:28:16Z</time>
      </trkpt>
      <trkpt lat="35.317150" lon="-112.960330">
        <ele>1586.693</ele>
        <time>2018-12-29T10:28:36Z</time>
      </trkpt>
      <trkpt lat="35.317060" lon="-112.960630">
        <ele>1586.348</ele>
        <time>2018-12-29T10:28:56Z</time>
      </trkpt>
      <trkpt lat="35.316810" lon="-112.961420">
        <ele>1585.261</ele>
        <time>2018-12-29T10:29:16Z</time>
      </trkpt>
      <trkpt lat="35.316620" lon="-112.962050">
        <ele>1584.317</ele>
        <time>2018-12-29T10:29:36Z</time>
      </trkpt>
      <trkpt lat="35.316550" lon="-112.962260">
        <ele>1583.908</ele>
        <time>2018-12-29T10:29:56Z</time>
      </trkpt>
      <trkpt lat="35.316360" lon="-112.962860">
        <ele>1582.717</ele>
        <time>2018-12-29T10:30:16Z</time>
      </trkpt>
      <trkpt lat="35.316130" lon="-112.963530">
        <ele>1581.455</ele>
        <time>2018-12-29T10:30:36Z</time>
      </trkpt>
      <trkpt lat="35.315940" lon="-112.964110">
        <ele>1580.420</ele>
        <time>2018-12-29T10:30:56Z</time>
      </trkpt>
      <trkpt lat="35.315700" lon="-112.964820">
        <ele>1579.891</ele>
        <time>2018-12-29T10:31:16Z</time>
      </trkpt>
      <trkpt lat="35.315570" lon="-112.965210">
        <ele>1579.746</ele>
        <time>2018-12-29T10:31:36Z</time>
      </trkpt>
      <trkpt lat="35.315440" lon="-112.965570">
        <ele>1579.756</ele>
        <time>2018-12-29T10:31:56Z</time>
      </trkpt>
      <trkpt lat="35.315290" lon="-112.966000">
        <ele>1579.598</ele>
        <time>2018-12-29T10:32:16Z</time>
      </trkpt>
      <trkpt lat="35.315170" lon="-112.966360">
        <ele>1578.972</ele>
        <time>2018-12-29T10:32:36Z</time>
      </trkpt>
      <trkpt lat="35.314830" lon="-112.967330">
        <ele>1577.735</ele>
        <time>2018-12-29T10:32:56Z</time>
      </trkpt>
      <trkpt lat="35.314440" lon="-112.968380">
        <ele>1576.786</ele>
        <time>2018-12-29T10:33:16Z</time>
      </trkpt>
      <trkpt lat="35.313830" lon="-112.970120">
        <ele>1575.714</ele>
        <time>2018-12-29T10:33:36Z</time>
      </trkpt>
      <trkpt lat="35.313190" lon="-112.971950">
        <ele>1574.108</ele>
        <time>2018-12-29T10:33:56Z</time>
      </trkpt>
      <trkpt lat="35.312490" lon="-112.973930">
        <ele>1573.756</ele>
        <time>2018-12-29T10:34:16Z</time>
      </trkpt>
      <trkpt lat="35.311850" lon="-112.975750">
        <ele>1573.744</ele>
        <time>2018-12-29T10:34:36Z</time>
      </trkpt>
      <trkpt lat="35.311080" lon="-112.977940">
        <ele>1575.919</ele>
        <time>2018-12-29T10:34:56Z</time>
      </trkpt>
      <trkpt lat="35.310380" lon="-112.979950">
        <ele>1579.350</ele>
        <time>2018-12-29T10:35:16Z</time>
      </trkpt>
      <trkpt lat="35.309560" lon="-112.982290">
        <ele>1582.695</ele>
        <time>2018-12-29T10:35:36Z</time>
      </trkpt>
      <trkpt lat="35.308990" lon="-112.983910">
        <ele>1585.635</ele>
        <time>2018-12-29T10:35:56Z</time>
      </trkpt>
      <trkpt lat="35.308430" lon="-112.985500">
        <ele>1588.917</ele>
        <time>2018-12-29T10:36:16Z</time>
      </trkpt>
      <trkpt lat="35.307600" lon="-112.987880">
        <ele>1593.641</ele>
        <time>2018-12-29T10:36:36Z</time>
      </trkpt>
      <trkpt lat="35.307260" lon="-112.988850">
        <ele>1595.252</ele>
        <time>2018-12-29T10:36:56Z</time>
      </trkpt>
      <trkpt lat="35.306600" lon="-112.990720">
        <ele>1598.653</ele>
        <time>2018-12-29T10:37:16Z</time>
      </trkpt>
      <trkpt lat="35.306020" lon="-112.992380">
        <ele>1601.708</ele>
        <time>2018-12-29T10:37:36Z</time>
      </trkpt>
      <trkpt lat="35.305580" lon="-112.993610">
        <ele>1604.308</ele>
        <time>2018-12-29T10:37:56Z</time>
      </trkpt>
      <trkpt lat="35.305150" lon="-112.994860">
        <ele>1607.758</ele>
        <time>2018-12-29T10:38:16Z</time>
      </trkpt>
      <trkpt lat="35.305030" lon="-112.995200">
        <ele>1609.216</ele>
        <time>2018-12-29T10:38:36Z</time>
      </trkpt>
      <trkpt lat="35.304870" lon="-112.995650">
        <ele>1610.511</ele>
        <time>2018-12-29T10:38:56Z</time>
      </trkpt>
      <trkpt lat="35.304730" lon="-112.996070">
        <ele>1610.742</ele>
        <time>2018-12-29T10:39:16Z</time>
      </trkpt>
      <trkpt lat="35.304620" lon="-112.996420">
        <ele>1611.557</ele>
        <time>2018-12-29T10:39:36Z</time>
      </trkpt>
      <trkpt lat="35.304410" lon="-112.997080">
        <ele>1613.517</ele>
        <time>2018-12-29T10:39:56Z</time>
      </trkpt>
      <trkpt lat="35.304240" lon="-112.997680">
        <ele>1615.429</ele>
        <time>2018-12-29T10:40:16Z</time>
      </trkpt>
      <trkpt lat="35.304140" lon="-112.998020">
        <ele>1616.393</ele>
        <time>2018-12-29T10:40:36Z</time>
      </trkpt>
      <trkpt lat="35.304050" lon="-112.998340">
        <ele>1617.059</ele>
        <time>2018-12-29T10:40:56Z</time>
      </trkpt>
      <trkpt lat="35.303930" lon="-112.998810">
        <ele>1618.203</ele>
        <time>2018-12-29T10:41:16Z</time>
      </trkpt>
      <trkpt lat="35.303850" lon="-112.999110">
        <ele>1619.223</ele>
        <time>2018-12-29T10:41:36Z</time>
      </trkpt>
      <trkpt lat="35.303750" lon="-112.999540">
        <ele>1620.208</ele>
        <time>2018-12-29T10:41:56Z</time>
      </trkpt>
      <trkpt lat="35.303590" lon="-113.000220">
        <ele>1621.768</ele>
        <time>2018-12-29T10:42:16Z</time>
      </trkpt>
      <trkpt lat="35.303530" lon="-113.000480">
        <ele>1622.266</ele>
        <time>2018-12-29T10:42:36Z</time>
      </trkpt>
      <trkpt lat="35.303480" lon="-113.000730">
        <ele>1622.981</ele>
        <time>2018-12-29T10:42:56Z</time>
      </trkpt>
      <trkpt lat="35.303380" lon="-113.001230">
        <ele>1623.972</ele>
        <time>2018-12-29T10:43:16Z</time>
      </trkpt>
      <trkpt lat="35.303370" lon="-113.001250">
        <ele>1623.997</ele>
        <time>2018-12-29T10:43:36Z</time>
      </trkpt>
      <trkpt lat="35.303150" lon="-113.002420">
        <ele>1627.447</ele>
        <time>2018-12-29T10:43:56Z</time>
      </trkpt>
      <trkpt lat="35.302930" lon="-113.003850">
        <ele>1629.569</ele>
        <time>2018-12-29T10:44:16Z</time>
      </trkpt>
      <trkpt lat="35.302800" lon="-113.004900">
        <ele>1632.443</ele>
        <time>2018-12-29T10:44:36Z</time>
      </trkpt>
      <trkpt lat="35.302740" lon="-113.005460">
        <ele>1633.636</ele>
        <time>2018-12-29T10:44:56Z</time>
      </trkpt>
      <trkpt lat="35.302680" lon="-113.006050">
        <ele>1634.717</ele>
        <time>2018-12-29T10:45:16Z</time>
      </trkpt>
      <trkpt lat="35.302640" lon="-113.006490">
        <ele>1635.018</ele>
        <time>2018-12-29T10:45:36Z</time>
      </trkpt>
      <trkpt lat="35.302610" lon="-113.006910">
        <ele>1636.708</ele>
        <time>2018-12-29T10:45:56Z</time>
      </trkpt>
      <trkpt lat="35.302570" lon="-113.007430">
        <ele>1638.766</ele>
        <time>2018-12-29T10:46:16Z</time>
      </trkpt>
      <trkpt lat="35.302520" lon="-113.008360">
        <ele>1640.874</ele>
        <time>2018-12-29T10:46:36Z</time>
      </trkpt>
      <trkpt lat="35.302510" lon="-113.008630">
        <ele>1640.939</ele>
        <time>2018-12-29T10:46:56Z</time>
      </trkpt>
      <trkpt lat="35.302500" lon="-113.009030">
        <ele>1641.480</ele>
        <time>2018-12-29T10:47:16Z</time>
      </trkpt>
      <trkpt lat="35.302470" lon="-113.009850">
        <ele>1644.895</ele>
        <time>2018-12-29T10:47:36Z</time>
      </trkpt>
      <trkpt lat="35.302440" lon="-113.010650">
        <ele>1646.925</ele>
        <time>2018-12-29T10:47:56Z</time>
      </trkpt>
      <trkpt lat="35.302410" lon="-113.011290">
        <ele>1650.297</ele>
        <time>2018-12-29T10:48:16Z</time>
      </trkpt>
      <trkpt lat="35.302400" lon="-113.011630">
        <ele>1652.411</ele>
        <time>2018-12-29T10:48:36Z</time>
      </trkpt>
      <trkpt lat="35.302360" lon="-113.012480">
        <ele>1657.277</ele>
        <time>2018-12-29T10:48:56Z</time>
      </trkpt>
      <trkpt lat="35.302340" lon="-113.013010">
        <ele>1660.061</ele>
        <time>2018-12-29T10:49:16Z</time>
      </trkpt>
      <trkpt lat="35.302320" lon="-113.013420">
        <ele>1660.427</ele>
        <time>2018-12-29T10:49:36Z</time>
      </trkpt>
      <trkpt lat="35.302270" lon="-113.013960">
        <ele>1663.308</ele>
        <time>2018-12-29T10:49:56Z</time>
      </trkpt>
      <trkpt lat="35.302200" lon="-113.014610">
        <ele>1665.550</ele>
        <time>2018-12-29T10:50:16Z</time>
      </trkpt>
      <trkpt lat="35.302120" lon="-113.015240">
        <ele>1668.458</ele>
        <time>2018-12-29T10:50:36Z</time>
      </trkpt>
      <trkpt lat="35.302010" lon="-113.015910">
        <ele>1672.373</ele>
        <time>2018-12-29T10:50:56Z</time>
      </trkpt>
      <trkpt lat="35.301840" lon="-113.016700">
        <ele>1676.674</ele>
        <time>2018-12-29T10:51:16Z</time>
      </trkpt>
      <trkpt lat="35.301760" lon="-113.017100">
        <ele>1676.139</ele>
        <time>2018-12-29T10:51:36Z</time>
      </trkpt>
      <trkpt lat="35.301690" lon="-113.017390">
        <ele>1677.289</ele>
        <time>2018-12-29T10:51:56Z</time>
      </trkpt>
      <trkpt lat="35.301540" lon="-113.017960">
        <ele>1678.121</ele>
        <time>2018-12-29T10:52:16Z</time>
      </trkpt>
      <trkpt lat="35.301460" lon="-113.018230">
        <ele>1679.695</ele>
        <time>2018-12-29T10:52:36Z</time>
      </trkpt>
      <trkpt lat="35.301270" lon="-113.018880">
        <ele>1678.691</ele>
        <time>2018-12-29T10:52:56Z</time>
      </trkpt>
      <trkpt lat="35.301150" lon="-113.019220">
        <ele>1680.981</ele>
        <time>2018-12-29T10:53:16Z</time>
      </trkpt>
      <trkpt lat="35.301070" lon="-113.019450">
        <ele>1681.919</ele>
        <time>2018-12-29T10:53:36Z</time>
      </trkpt>
      <trkpt lat="35.300880" lon="-113.019940">
        <ele>1683.208</ele>
        <time>2018-12-29T10:53:56Z</time>
      </trkpt>
      <trkpt lat="35.300630" lon="-113.020580">
        <ele>1683.682</ele>
        <time>2018-12-29T10:54:16Z</time>
      </trkpt>
      <trkpt lat="35.300380" lon="-113.021140">
        <ele>1683.660</ele>
        <time>2018-12-29T10:54:36Z</time>
      </trkpt>
      <trkpt lat="35.300170" lon="-113.021590">
        <ele>1683.695</ele>
        <time>2018-12-29T10:54:56Z</time>
      </trkpt>
      <trkpt lat="35.299970" lon="-113.022010">
        <ele>1684.076</ele>
        <time>2018-12-29T10:55:16Z</time>
      </trkpt>
      <trkpt lat="35.299760" lon="-113.022400">
        <ele>1684.011</ele>
        <time>2018-12-29T10:55:36Z</time>
      </trkpt>
      <trkpt lat="35.299580" lon="-113.022720">
        <ele>1683.411</ele>
        <time>2018-12-29T10:55:56Z</time>
      </trkpt>
      <trkpt lat="35.299470" lon="-113.022900">
        <ele>1683.523</ele>
        <time>2018-12-29T10:56:16Z</time>
      </trkpt>
      <trkpt lat="35.299000" lon="-113.023700">
        <ele>1683.267</ele>
        <time>2018-12-29T10:56:36Z</time>
      </trkpt>
      <trkpt lat="35.298850" lon="-113.023920">
        <ele>1681.887</ele>
        <time>2018-12-29T10:56:56Z</time>
      </trkpt>
      <trkpt lat="35.298720" lon="-113.024110">
        <ele>1681.042</ele>
        <time>2018-12-29T10:57:16Z</time>
      </trkpt>
      <trkpt lat="35.298140" lon="-113.024920">
        <ele>1679.426</ele>
        <time>2018-12-29T10:57:36Z</time>
      </trkpt>
      <trkpt lat="35.297780" lon="-113.025410">
        <ele>1679.108</ele>
        <time>2018-12-29T10:57:56Z</time>
      </trkpt>
      <trkpt lat="35.297130" lon="-113.026280">
        <ele>1677.471</ele>
        <time>2018-12-29T10:58:16Z</time>
      </trkpt>
      <trkpt lat="35.296530" lon="-113.027080">
        <ele>1674.289</ele>
        <time>2018-12-29T10:58:36Z</time>
      </trkpt>
      <trkpt lat="35.296150" lon="-113.027590">
        <ele>1672.934</ele>
        <time>2018-12-29T10:58:56Z</time>
      </trkpt>
      <trkpt lat="35.296010" lon="-113.027780">
        <ele>1672.835</ele>
        <time>2018-12-29T10:59:16Z</time>
      </trkpt>
      <trkpt lat="35.295750" lon="-113.028130">
        <ele>1672.150</ele>
        <time>2018-12-29T10:59:36Z</time>
      </trkpt>
      <trkpt lat="35.295270" lon="-113.028770">
        <ele>1668.990</ele>
        <time>2018-12-29T10:59:56Z</time>
      </trkpt>
      <trkpt lat="35.295060" lon="-113.029070">
        <ele>1668.022</ele>
        <time>2018-12-29T11:00:16Z</time>
      </trkpt>
      <trkpt lat="35.294760" lon="-113.029500">
        <ele>1667.416</ele>
        <time>2018-12-29T11:00:36Z</time>
      </trkpt>
      <trkpt lat="35.294630" lon="-113.029700">
        <ele>1667.197</ele>
        <time>2018-12-29T11:00:56Z</time>
      </trkpt>
      <trkpt lat="35.294440" lon="-113.030010">
        <ele>1666.323</ele>
        <time>2018-12-29T11:01:16Z</time>
      </trkpt>
      <trkpt lat="35.294370" lon="-113.030140">
        <ele>1666.125</ele>
        <time>2018-12-29T11:01:36Z</time>
      </trkpt>
      <trkpt lat="35.294190" lon="-113.030450">
        <ele>1666.008</ele>
        <time>2018-12-29T11:01:56Z</time>
      </trkpt>
      <trkpt lat="35.294090" lon="-113.030630">
        <ele>1666.172</ele>
        <time>2018-12-29T11:02:16Z</time>
      </trkpt>
      <trkpt lat="35.294010" lon="-113.030800">
        <ele>1666.220</ele>
        <time>2018-12-29T11:02:36Z</time>
      </trkpt>
      <trkpt lat="35.293840" lon="-113.031140">
        <ele>1665.995</ele>
        <time>2018-12-29T11:02:56Z</time>
      </trkpt>
      <trkpt lat="35.293790" lon="-113.031250">
        <ele>1665.926</ele>
        <time>2018-12-29T11:03:16Z</time>
      </trkpt>
      <trkpt lat="35.293720" lon="-113.031410">
        <ele>1663.871</ele>
        <time>2018-12-29T11:03:36Z</time>
      </trkpt>
      <trkpt lat="35.293640" lon="-113.031580">
        <ele>1663.491</ele>
        <time>2018-12-29T11:03:56Z</time>
      </trkpt>
      <trkpt lat="35.293580" lon="-113.031730">
        <ele>1664.953</ele>
        <time>2018-12-29T11:04:16Z</time>
      </trkpt>
      <trkpt lat="35.293550" lon="-113.031820">
        <ele>1665.847</ele>
        <time>2018-12-29T11:04:36Z</time>
      </trkpt>
      <trkpt lat="35.293400" lon="-113.032210">
        <ele>1669.562</ele>
        <time>2018-12-29T11:04:56Z</time>
      </trkpt>
      <trkpt lat="35.293210" lon="-113.032760">
        <ele>1672.583</ele>
        <time>2018-12-29T11:05:16Z</time>
      </trkpt>
      <trkpt lat="35.292970" lon="-113.033600">
        <ele>1676.511</ele>
        <time>2018-12-29T11:05:36Z</time>
      </trkpt>
      <trkpt lat="35.292790" lon="-113.034360">
        <ele>1678.608</ele>
        <time>2018-12-29T11:05:56Z</time>
      </trkpt>
      <trkpt lat="35.292680" lon="-113.034950">
        <ele>1680.789</ele>
        <time>2018-12-29T11:06:16Z</time>
      </trkpt>
      <trkpt lat="35.292620" lon="-113.035410">
        <ele>1682.587</ele>
        <time>2018-12-29T11:06:36Z</time>
      </trkpt>
      <trkpt lat="35.292570" lon="-113.035820">
        <ele>1683.812</ele>
        <time>2018-12-29T11:06:56Z</time>
      </trkpt>
      <trkpt lat="35.292550" lon="-113.036100">
        <ele>1684.743</ele>
        <time>2018-12-29T11:07:16Z</time>
      </trkpt>
      <trkpt lat="35.292510" lon="-113.036620">
        <ele>1688.718</ele>
        <time>2018-12-29T11:07:36Z</time>
      </trkpt>
      <trkpt lat="35.292500" lon="-113.036880">
        <ele>1689.798</ele>
        <time>2018-12-29T11:07:56Z</time>
      </trkpt>
      <trkpt lat="35.292480" lon="-113.037550">
        <ele>1690.120</ele>
        <time>2018-12-29T11:08:16Z</time>
      </trkpt>
      <trkpt lat="35.292480" lon="-113.038060">
        <ele>1689.994</ele>
        <time>2018-12-29T11:08:36Z</time>
      </trkpt>
      <trkpt lat="35.292470" lon="-113.038760">
        <ele>1690.983</ele>
        <time>2018-12-29T11:08:56Z</time>
      </trkpt>
      <trkpt lat="35.292460" lon="-113.039440">
        <ele>1695.325</ele>
        <time>2018-12-29T11:09:16Z</time>
      </trkpt>
      <trkpt lat="35.292460" lon="-113.040090">
        <ele>1695.517</ele>
        <time>2018-12-29T11:09:36Z</time>
      </trkpt>
      <trkpt lat="35.292450" lon="-113.040790">
        <ele>1695.608</ele>
        <time>2018-12-29T11:09:56Z</time>
      </trkpt>
      <trkpt lat="35.292430" lon="-113.041850">
        <ele>1695.621</ele>
        <time>2018-12-29T11:10:16Z</time>
      </trkpt>
      <trkpt lat="35.292430" lon="-113.042540">
        <ele>1697.299</ele>
        <time>2018-12-29T11:10:36Z</time>
      </trkpt>
      <trkpt lat="35.292420" lon="-113.043360">
        <ele>1698.154</ele>
        <time>2018-12-29T11:10:56Z</time>
      </trkpt>
      <trkpt lat="35.292410" lon="-113.044500">
        <ele>1697.695</ele>
        <time>2018-12-29T11:11:16Z</time>
      </trkpt>
      <trkpt lat="35.292390" lon="-113.046090">
        <ele>1699.360</ele>
        <time>2018-12-29T11:11:36Z</time>
      </trkpt>
      <trkpt lat="35.292370" lon="-113.047500">
        <ele>1697.240</ele>
        <time>2018-12-29T11:11:56Z</time>
      </trkpt>
      <trkpt lat="35.292360" lon="-113.048110">
        <ele>1698.272</ele>
        <time>2018-12-29T11:12:16Z</time>
      </trkpt>
      <trkpt lat="35.292340" lon="-113.049550">
        <ele>1697.576</ele>
        <time>2018-12-29T11:12:36Z</time>
      </trkpt>
      <trkpt lat="35.292330" lon="-113.051170">
        <ele>1701.591</ele>
        <time>2018-12-29T11:12:56Z</time>
      </trkpt>
      <trkpt lat="35.292310" lon="-113.051970">
        <ele>1703.581</ele>
        <time>2018-12-29T11:13:16Z</time>
      </trkpt>
      <trkpt lat="35.292300" lon="-113.053170">
        <ele>1705.619</ele>
        <time>2018-12-29T11:13:36Z</time>
      </trkpt>
      <trkpt lat="35.292290" lon="-113.054100">
        <ele>1706.708</ele>
        <time>2018-12-29T11:13:56Z</time>
      </trkpt>
      <trkpt lat="35.292280" lon="-113.055180">
        <ele>1711.692</ele>
        <time>2018-12-29T11:14:16Z</time>
      </trkpt>
      <trkpt lat="35.292270" lon="-113.055970">
        <ele>1711.450</ele>
        <time>2018-12-29T11:14:36Z</time>
      </trkpt>
      <trkpt lat="35.292260" lon="-113.056640">
        <ele>1711.575</ele>
        <time>2018-12-29T11:14:56Z</time>
      </trkpt>
      <trkpt lat="35.292240" lon="-113.057840">
        <ele>1710.486</ele>
        <time>2018-12-29T11:15:16Z</time>
      </trkpt>
      <trkpt lat="35.292220" lon="-113.059730">
        <ele>1714.271</ele>
        <time>2018-12-29T11:15:36Z</time>
      </trkpt>
      <trkpt lat="35.292200" lon="-113.061740">
        <ele>1719.991</ele>
        <time>2018-12-29T11:15:56Z</time>
      </trkpt>
      <trkpt lat="35.292060" lon="-113.073060">
        <ele>1747.233</ele>
        <time>2018-12-29T11:16:16Z</time>
      </trkpt>
      <trkpt lat="35.292050" lon="-113.073570">
        <ele>1748.047</ele>
        <time>2018-12-29T11:16:36Z</time>
      </trkpt>
      <trkpt lat="35.292000" lon="-113.074820">
        <ele>1749.411</ele>
        <time>2018-12-29T11:16:56Z</time>
      </trkpt>
      <trkpt lat="35.291980" lon="-113.075130">
        <ele>1750.621</ele>
        <time>2018-12-29T11:17:16Z</time>
      </trkpt>
      <trkpt lat="35.291930" lon="-113.075860">
        <ele>1751.903</ele>
        <time>2018-12-29T11:17:36Z</time>
      </trkpt>
      <trkpt lat="35.291840" lon="-113.076910">
        <ele>1754.308</ele>
        <time>2018-12-29T11:17:56Z</time>
      </trkpt>
      <trkpt lat="35.291770" lon="-113.077580">
        <ele>1755.594</ele>
        <time>2018-12-29T11:18:16Z</time>
      </trkpt>
      <trkpt lat="35.291710" lon="-113.078060">
        <ele>1755.532</ele>
        <time>2018-12-29T11:18:36Z</time>
      </trkpt>
      <trkpt lat="35.291630" lon="-113.078660">
        <ele>1754.497</ele>
        <time>2018-12-29T11:18:56Z</time>
      </trkpt>
      <trkpt lat="35.291500" lon="-113.079580">
        <ele>1754.348</ele>
        <time>2018-12-29T11:19:16Z</time>
      </trkpt>
      <trkpt lat="35.291430" lon="-113.079950">
        <ele>1752.523</ele>
        <time>2018-12-29T11:19:36Z</time>
      </trkpt>
      <trkpt lat="35.291320" lon="-113.080600">
        <ele>1751.373</ele>
        <time>2018-12-29T11:19:56Z</time>
      </trkpt>
      <trkpt lat="35.291250" lon="-113.081000">
        <ele>1750.615</ele>
        <time>2018-12-29T11:20:16Z</time>
      </trkpt>
      <trkpt lat="35.291200" lon="-113.081240">
        <ele>1748.669</ele>
        <time>2018-12-29T11:20:36Z</time>
      </trkpt>
      <trkpt lat="35.291020" lon="-113.082090">
        <ele>1744.683</ele>
        <time>2018-12-29T11:20:56Z</time>
      </trkpt>
      <trkpt lat="35.290950" lon="-113.082440">
        <ele>1744.625</ele>
        <time>2018-12-29T11:21:16Z</time>
      </trkpt>
      <trkpt lat="35.290890" lon="-113.082690">
        <ele>1744.617</ele>
        <time>2018-12-29T11:21:36Z</time>
      </trkpt>
      <trkpt lat="35.290800" lon="-113.083080">
        <ele>1744.408</ele>
        <time>2018-12-29T11:21:56Z</time>
      </trkpt>
      <trkpt lat="35.290700" lon="-113.083490">
        <ele>1743.091</ele>
        <time>2018-12-29T11:22:16Z</time>
      </trkpt>
      <trkpt lat="35.290570" lon="-113.083990">
        <ele>1740.269</ele>
        <time>2018-12-29T11:22:36Z</time>
      </trkpt>
      <trkpt lat="35.290380" lon="-113.084700">
        <ele>1738.494</ele>
        <time>2018-12-29T11:22:56Z</time>
      </trkpt>
      <trkpt lat="35.290100" lon="-113.085680">
        <ele>1737.675</ele>
        <time>2018-12-29T11:23:16Z</time>
      </trkpt>
      <trkpt lat="35.289950" lon="-113.086170">
        <ele>1737.470</ele>
        <time>2018-12-29T11:23:36Z</time>
      </trkpt>
      <trkpt lat="35.289730" lon="-113.086840">
        <ele>1737.790</ele>
        <time>2018-12-29T11:23:56Z</time>
      </trkpt>
      <trkpt lat="35.289610" lon="-113.087190">
        <ele>1737.792</ele>
        <time>2018-12-29T11:24:16Z</time>
      </trkpt>
      <trkpt lat="35.289530" lon="-113.087420">
        <ele>1737.466</ele>
        <time>2018-12-29T11:24:36Z</time>
      </trkpt>
      <trkpt lat="35.289420" lon="-113.087740">
        <ele>1736.942</ele>
        <time>2018-12-29T11:24:56Z</time>
      </trkpt>
      <trkpt lat="35.289160" lon="-113.088430">
        <ele>1736.822</ele>
        <time>2018-12-29T11:25:16Z</time>
      </trkpt>
      <trkpt lat="35.288930" lon="-113.089030">
        <ele>1737.014</ele>
        <time>2018-12-29T11:25:36Z</time>
      </trkpt>
      <trkpt lat="35.288490" lon="-113.090100">
        <ele>1735.908</ele>
        <time>2018-12-29T11:25:56Z</time>
      </trkpt>
      <trkpt lat="35.288380" lon="-113.090340">
        <ele>1735.547</ele>
        <time>2018-12-29T11:26:16Z</time>
      </trkpt>
      <trkpt lat="35.288120" lon="-113.090940">
        <ele>1735.165</ele>
        <time>2018-12-29T11:26:36Z</time>
      </trkpt>
      <trkpt lat="35.288060" lon="-113.091070">
        <ele>1735.520</ele>
        <time>2018-12-29T11:26:56Z</time>
      </trkpt>
      <trkpt lat="35.287880" lon="-113.091470">
        <ele>1736.721</ele>
        <time>2018-12-29T11:27:16Z</time>
      </trkpt>
      <trkpt lat="35.287500" lon="-113.092240">
        <ele>1737.686</ele>
        <time>2018-12-29T11:27:36Z</time>
      </trkpt>
      <trkpt lat="35.287220" lon="-113.092830">
        <ele>1737.736</ele>
        <time>2018-12-29T11:27:56Z</time>
      </trkpt>
      <trkpt lat="35.287190" lon="-113.092890">
        <ele>1737.848</ele>
        <time>2018-12-29T11:28:16Z</time>
      </trkpt>
      <trkpt lat="35.286950" lon="-113.093390">
        <ele>1737.872</ele>
        <time>2018-12-29T11:28:36Z</time>
      </trkpt>
      <trkpt lat="35.286730" lon="-113.093860">
        <ele>1737.894</ele>
        <time>2018-12-29T11:28:56Z</time>
      </trkpt>
      <trkpt lat="35.286630" lon="-113.094090">
        <ele>1738.257</ele>
        <time>2018-12-29T11:29:16Z</time>
      </trkpt>
      <trkpt lat="35.286480" lon="-113.094470">
        <ele>1737.722</ele>
        <time>2018-12-29T11:29:36Z</time>
      </trkpt>
      <trkpt lat="35.286340" lon="-113.094850">
        <ele>1737.708</ele>
        <time>2018-12-29T11:29:56Z</time>
      </trkpt>
      <trkpt lat="35.286230" lon="-113.095220">
        <ele>1737.132</ele>
        <time>2018-12-29T11:30:16Z</time>
      </trkpt>
      <trkpt lat="35.286160" lon="-113.095470">
        <ele>1736.960</ele>
        <time>2018-12-29T11:30:36Z</time>
      </trkpt>
      <trkpt lat="35.286070" lon="-113.095870">
        <ele>1736.565</ele>
        <time>2018-12-29T11:30:56Z</time>
      </trkpt>
      <trkpt lat="35.285990" lon="-113.096260">
        <ele>1736.836</ele>
        <time>2018-12-29T11:31:16Z</time>
      </trkpt>
      <trkpt lat="35.285940" lon="-113.096530">
        <ele>1736.591</ele>
        <time>2018-12-29T11:31:36Z</time>
      </trkpt>
      <trkpt lat="35.285890" lon="-113.096930">
        <ele>1736.381</ele>
        <time>2018-12-29T11:31:56Z</time>
      </trkpt>
      <trkpt lat="35.285850" lon="-113.097230">
        <ele>1735.643</ele>
        <time>2018-12-29T11:32:16Z</time>
      </trkpt>
      <trkpt lat="35.285820" lon="-113.097610">
        <ele>1734.267</ele>
        <time>2018-12-29T11:32:36Z</time>
      </trkpt>
      <trkpt lat="35.285800" lon="-113.098010">
        <ele>1733.252</ele>
        <time>2018-12-29T11:32:56Z</time>
      </trkpt>
      <trkpt lat="35.285800" lon="-113.098550">
        <ele>1731.153</ele>
        <time>2018-12-29T11:33:16Z</time>
      </trkpt>
      <trkpt lat="35.285820" lon="-113.098950">
        <ele>1729.508</ele>
        <time>2018-12-29T11:33:36Z</time>
      </trkpt>
      <trkpt lat="35.285840" lon="-113.099340">
        <ele>1726.508</ele>
        <time>2018-12-29T11:33:56Z</time>
      </trkpt>
      <trkpt lat="35.285890" lon="-113.099760">
        <ele>1725.968</ele>
        <time>2018-12-29T11:34:16Z</time>
      </trkpt>
      <trkpt lat="35.285920" lon="-113.100020">
        <ele>1724.426</ele>
        <time>2018-12-29T11:34:36Z</time>
      </trkpt>
      <trkpt lat="35.285990" lon="-113.100420">
        <ele>1722.771</ele>
        <time>2018-12-29T11:34:56Z</time>
      </trkpt>
      <trkpt lat="35.286120" lon="-113.101100">
        <ele>1720.682</ele>
        <time>2018-12-29T11:35:16Z</time>
      </trkpt>
      <trkpt lat="35.286200" lon="-113.101490">
        <ele>1719.487</ele>
        <time>2018-12-29T11:35:36Z</time>
      </trkpt>
      <trkpt lat="35.286410" lon="-113.102550">
        <ele>1714.577</ele>
        <time>2018-12-29T11:35:56Z</time>
      </trkpt>
      <trkpt lat="35.286630" lon="-113.103690">
        <ele>1708.839</ele>
        <time>2018-12-29T11:36:16Z</time>
      </trkpt>
      <trkpt lat="35.286940" lon="-113.105280">
        <ele>1705.373</ele>
        <time>2018-12-29T11:36:36Z</time>
      </trkpt>
      <trkpt lat="35.287020" lon="-113.105660">
        <ele>1705.026</ele>
        <time>2018-12-29T11:36:56Z</time>
      </trkpt>
      <trkpt lat="35.287310" lon="-113.107130">
        <ele>1704.347</ele>
        <time>2018-12-29T11:37:16Z</time>
      </trkpt>
      <trkpt lat="35.287450" lon="-113.107880">
        <ele>1703.511</ele>
        <time>2018-12-29T11:37:36Z</time>
      </trkpt>
      <trkpt lat="35.287560" lon="-113.108540">
        <ele>1703.808</ele>
        <time>2018-12-29T11:37:56Z</time>
      </trkpt>
      <trkpt lat="35.287610" lon="-113.108840">
        <ele>1703.915</ele>
        <time>2018-12-29T11:38:16Z</time>
      </trkpt>
      <trkpt lat="35.287670" lon="-113.109380">
        <ele>1704.433</ele>
        <time>2018-12-29T11:38:36Z</time>
      </trkpt>
      <trkpt lat="35.287720" lon="-113.109900">
        <ele>1705.388</ele>
        <time>2018-12-29T11:38:56Z</time>
      </trkpt>
      <trkpt lat="35.287750" lon="-113.110320">
        <ele>1705.649</ele>
        <time>2018-12-29T11:39:16Z</time>
      </trkpt>
      <trkpt lat="35.287770" lon="-113.110710">
        <ele>1705.614</ele>
        <time>2018-12-29T11:39:36Z</time>
      </trkpt>
      <trkpt lat="35.287780" lon="-113.111120">
        <ele>1705.524</ele>
        <time>2018-12-29T11:39:56Z</time>
      </trkpt>
      <trkpt lat="35.287790" lon="-113.111330">
        <ele>1705.586</ele>
        <time>2018-12-29T11:40:16Z</time>
      </trkpt>
      <trkpt lat="35.287790" lon="-113.111900">
        <ele>1705.480</ele>
        <time>2018-12-29T11:40:36Z</time>
      </trkpt>
      <trkpt lat="35.287780" lon="-113.112330">
        <ele>1705.378</ele>
        <time>2018-12-29T11:40:56Z</time>
      </trkpt>
      <trkpt lat="35.287750" lon="-113.112870">
        <ele>1704.933</ele>
        <time>2018-12-29T11:41:16Z</time>
      </trkpt>
      <trkpt lat="35.287720" lon="-113.113270">
        <ele>1704.226</ele>
        <time>2018-12-29T11:41:36Z</time>
      </trkpt>
      <trkpt lat="35.287700" lon="-113.113540">
        <ele>1702.908</ele>
        <time>2018-12-29T11:41:56Z</time>
      </trkpt>
      <trkpt lat="35.287680" lon="-113.113810">
        <ele>1702.170</ele>
        <time>2018-12-29T11:42:16Z</time>
      </trkpt>
      <trkpt lat="35.287630" lon="-113.114220">
        <ele>1701.678</ele>
        <time>2018-12-29T11:42:36Z</time>
      </trkpt>
      <trkpt lat="35.287550" lon="-113.114770">
        <ele>1701.053</ele>
        <time>2018-12-29T11:42:56Z</time>
      </trkpt>
      <trkpt lat="35.287490" lon="-113.115150">
        <ele>1699.564</ele>
        <time>2018-12-29T11:43:16Z</time>
      </trkpt>
      <trkpt lat="35.287430" lon="-113.115530">
        <ele>1697.869</ele>
        <time>2018-12-29T11:43:36Z</time>
      </trkpt>
      <trkpt lat="35.287380" lon="-113.115800">
        <ele>1697.529</ele>
        <time>2018-12-29T11:43:56Z</time>
      </trkpt>
      <trkpt lat="35.287290" lon="-113.116200">
        <ele>1697.051</ele>
        <time>2018-12-29T11:44:16Z</time>
      </trkpt>
      <trkpt lat="35.287200" lon="-113.116590">
        <ele>1697.135</ele>
        <time>2018-12-29T11:44:36Z</time>
      </trkpt>
      <trkpt lat="35.287140" lon="-113.116840">
        <ele>1696.669</ele>
        <time>2018-12-29T11:44:56Z</time>
      </trkpt>
      <trkpt lat="35.287070" lon="-113.117110">
        <ele>1696.304</ele>
        <time>2018-12-29T11:45:16Z</time>
      </trkpt>
      <trkpt lat="35.286960" lon="-113.117490">
        <ele>1696.824</ele>
        <time>2018-12-29T11:45:36Z</time>
      </trkpt>
      <trkpt lat="35.286880" lon="-113.117730">
        <ele>1696.208</ele>
        <time>2018-12-29T11:45:56Z</time>
      </trkpt>
      <trkpt lat="35.286710" lon="-113.118270">
        <ele>1694.799</ele>
        <time>2018-12-29T11:46:16Z</time>
      </trkpt>
      <trkpt lat="35.286540" lon="-113.118760">
        <ele>1693.267</ele>
        <time>2018-12-29T11:46:36Z</time>
      </trkpt>
      <trkpt lat="35.286500" lon="-113.118870">
        <ele>1693.082</ele>
        <time>2018-12-29T11:46:56Z</time>
      </trkpt>
      <trkpt lat="35.285780" lon="-113.120630">
        <ele>1677.743</ele>
        <time>2018-12-29T11:47:16Z</time>
      </trkpt>
      <trkpt lat="35.285700" lon="-113.120820">
        <ele>1674.468</ele>
        <time>2018-12-29T11:47:36Z</time>
      </trkpt>
      <trkpt lat="35.285380" lon="-113.121450">
        <ele>1679.498</ele>
        <time>2018-12-29T11:47:56Z</time>
      </trkpt>
      <trkpt lat="35.285180" lon="-113.121840">
        <ele>1678.050</ele>
        <time>2018-12-29T11:48:16Z</time>
      </trkpt>
      <trkpt lat="35.284940" lon="-113.122280">
        <ele>1676.224</ele>
        <time>2018-12-29T11:48:36Z</time>
      </trkpt>
      <trkpt lat="35.284620" lon="-113.122830">
        <ele>1673.571</ele>
        <time>2018-12-29T11:48:56Z</time>
      </trkpt>
      <trkpt lat="35.284480" lon="-113.123060">
        <ele>1672.941</ele>
        <time>2018-12-29T11:49:16Z</time>
      </trkpt>
      <trkpt lat="35.284280" lon="-113.123360">
        <ele>1673.415</ele>
        <time>2018-12-29T11:49:36Z</time>
      </trkpt>
      <trkpt lat="35.284190" lon="-113.123500">
        <ele>1673.508</ele>
        <time>2018-12-29T11:49:56Z</time>
      </trkpt>
      <trkpt lat="35.283900" lon="-113.123930">
        <ele>1673.150</ele>
        <time>2018-12-29T11:50:16Z</time>
      </trkpt>
      <trkpt lat="35.283570" lon="-113.124390">
        <ele>1670.168</ele>
        <time>2018-12-29T11:50:36Z</time>
      </trkpt>
      <trkpt lat="35.283270" lon="-113.124790">
        <ele>1668.153</ele>
        <time>2018-12-29T11:50:56Z</time>
      </trkpt>
      <trkpt lat="35.282880" lon="-113.125260">
        <ele>1667.224</ele>
        <time>2018-12-29T11:51:16Z</time>
      </trkpt>
      <trkpt lat="35.282560" lon="-113.125620">
        <ele>1667.629</ele>
        <time>2018-12-29T11:51:36Z</time>
      </trkpt>
      <trkpt lat="35.282310" lon="-113.125900">
        <ele>1667.659</ele>
        <time>2018-12-29T11:51:56Z</time>
      </trkpt>
      <trkpt lat="35.282060" lon="-113.126160">
        <ele>1667.421</ele>
        <time>2018-12-29T11:52:16Z</time>
      </trkpt>
      <trkpt lat="35.281360" lon="-113.126860">
        <ele>1666.795</ele>
        <time>2018-12-29T11:52:36Z</time>
      </trkpt>
      <trkpt lat="35.280860" lon="-113.127380">
        <ele>1666.191</ele>
        <time>2018-12-29T11:52:56Z</time>
      </trkpt>
      <trkpt lat="35.280460" lon="-113.127830">
        <ele>1664.881</ele>
        <time>2018-12-29T11:53:16Z</time>
      </trkpt>
      <trkpt lat="35.280140" lon="-113.128220">
        <ele>1663.319</ele>
        <time>2018-12-29T11:53:36Z</time>
      </trkpt>
      <trkpt lat="35.279990" lon="-113.128400">
        <ele>1662.808</ele>
        <time>2018-12-29T11:53:56Z</time>
      </trkpt>
      <trkpt lat="35.279760" lon="-113.128700">
        <ele>1662.472</ele>
        <time>2018-12-29T11:54:16Z</time>
      </trkpt>
      <trkpt lat="35.279590" lon="-113.128920">
        <ele>1662.180</ele>
        <time>2018-12-29T11:54:36Z</time>
      </trkpt>
      <trkpt lat="35.279310" lon="-113.129320">
        <ele>1661.165</ele>
        <time>2018-12-29T11:54:56Z</time>
      </trkpt>
      <trkpt lat="35.279160" lon="-113.129540">
        <ele>1660.726</ele>
        <time>2018-12-29T11:55:16Z</time>
      </trkpt>
      <trkpt lat="35.278950" lon="-113.129840">
        <ele>1660.261</ele>
        <time>2018-12-29T11:55:36Z</time>
      </trkpt>
      <trkpt lat="35.278770" lon="-113.130130">
        <ele>1659.941</ele>
        <time>2018-12-29T11:55:56Z</time>
      </trkpt>
      <trkpt lat="35.278680" lon="-113.130290">
        <ele>1659.543</ele>
        <time>2018-12-29T11:56:16Z</time>
      </trkpt>
      <trkpt lat="35.278490" lon="-113.130590">
        <ele>1659.247</ele>
        <time>2018-12-29T11:56:36Z</time>
      </trkpt>
      <trkpt lat="35.278180" lon="-113.131150">
        <ele>1659.018</ele>
        <time>2018-12-29T11:56:56Z</time>
      </trkpt>
      <trkpt lat="35.277990" lon="-113.131500">
        <ele>1657.698</ele>
        <time>2018-12-29T11:57:16Z</time>
      </trkpt>
      <trkpt lat="35.277740" lon="-113.131950">
        <ele>1657.317</ele>
        <time>2018-12-29T11:57:36Z</time>
      </trkpt>
      <trkpt lat="35.277440" lon="-113.132500">
        <ele>1656.908</ele>
        <time>2018-12-29T11:57:56Z</time>
      </trkpt>
      <trkpt lat="35.276950" lon="-113.133430">
        <ele>1655.384</ele>
        <time>2018-12-29T11:58:16Z</time>
      </trkpt>
      <trkpt lat="35.276590" lon="-113.134100">
        <ele>1654.012</ele>
        <time>2018-12-29T11:58:36Z</time>
      </trkpt>
      <trkpt lat="35.275980" lon="-113.135220">
        <ele>1651.297</ele>
        <time>2018-12-29T11:58:56Z</time>
      </trkpt>
      <trkpt lat="35.275860" lon="-113.135440">
        <ele>1650.818</ele>
        <time>2018-12-29T11:59:16Z</time>
      </trkpt>
      <trkpt lat="35.275430" lon="-113.136240">
        <ele>1649.523</ele>
        <time>2018-12-29T11:59:36Z</time>
      </trkpt>
      <trkpt lat="35.275000" lon="-113.137030">
        <ele>1647.723</ele>
        <time>2018-12-29T11:59:56Z</time>
      </trkpt>
      <trkpt lat="35.274750" lon="-113.137500">
        <ele>1647.355</ele>
        <time>2018-12-29T12:00:16Z</time>
      </trkpt>
      <trkpt lat="35.274440" lon="-113.138070">
        <ele>1645.149</ele>
        <time>2018-12-29T12:00:36Z</time>
      </trkpt>
      <trkpt lat="35.274200" lon="-113.138510">
        <ele>1643.998</ele>
        <time>2018-12-29T12:00:56Z</time>
      </trkpt>
      <trkpt lat="35.273780" lon="-113.139290">
        <ele>1642.015</ele>
        <time>2018-12-29T12:01:16Z</time>
      </trkpt>
      <trkpt lat="35.273470" lon="-113.139870">
        <ele>1640.726</ele>
        <time>2018-12-29T12:01:36Z</time>
      </trkpt>
      <trkpt lat="35.273170" lon="-113.140430">
        <ele>1639.908</ele>
        <time>2018-12-29T12:01:56Z</time>
      </trkpt>
      <trkpt lat="35.272800" lon="-113.141100">
        <ele>1638.832</ele>
        <time>2018-12-29T12:02:16Z</time>
      </trkpt>
      <trkpt lat="35.272430" lon="-113.141790">
        <ele>1637.970</ele>
        <time>2018-12-29T12:02:36Z</time>
      </trkpt>
      <trkpt lat="35.272070" lon="-113.142460">
        <ele>1637.325</ele>
        <time>2018-12-29T12:02:56Z</time>
      </trkpt>
      <trkpt lat="35.271760" lon="-113.143030">
        <ele>1636.796</ele>
        <time>2018-12-29T12:03:16Z</time>
      </trkpt>
      <trkpt lat="35.271450" lon="-113.143610">
        <ele>1635.991</ele>
        <time>2018-12-29T12:03:36Z</time>
      </trkpt>
      <trkpt lat="35.271250" lon="-113.143970">
        <ele>1635.591</ele>
        <time>2018-12-29T12:03:56Z</time>
      </trkpt>
      <trkpt lat="35.270910" lon="-113.144610">
        <ele>1635.023</ele>
        <time>2018-12-29T12:04:16Z</time>
      </trkpt>
      <trkpt lat="35.270600" lon="-113.145180">
        <ele>1634.817</ele>
        <time>2018-12-29T12:04:36Z</time>
      </trkpt>
      <trkpt lat="35.270290" lon="-113.145760">
        <ele>1634.121</ele>
        <time>2018-12-29T12:04:56Z</time>
      </trkpt>
      <trkpt lat="35.270100" lon="-113.146100">
        <ele>1633.741</ele>
        <time>2018-12-29T12:05:16Z</time>
      </trkpt>
      <trkpt lat="35.269740" lon="-113.146780">
        <ele>1632.905</ele>
        <time>2018-12-29T12:05:36Z</time>
      </trkpt>
      <trkpt lat="35.269450" lon="-113.147320">
        <ele>1632.308</ele>
        <time>2018-12-29T12:05:56Z</time>
      </trkpt>
      <trkpt lat="35.269260" lon="-113.147670">
        <ele>1632.235</ele>
        <time>2018-12-29T12:06:16Z</time>
      </trkpt>
      <trkpt lat="35.269080" lon="-113.148010">
        <ele>1632.063</ele>
        <time>2018-12-29T12:06:36Z</time>
      </trkpt>
      <trkpt lat="35.268900" lon="-113.148340">
        <ele>1631.918</ele>
        <time>2018-12-29T12:06:56Z</time>
      </trkpt>
      <trkpt lat="35.268530" lon="-113.149020">
        <ele>1631.779</ele>
        <time>2018-12-29T12:07:16Z</time>
      </trkpt>
      <trkpt lat="35.268280" lon="-113.149480">
        <ele>1631.794</ele>
        <time>2018-12-29T12:07:36Z</time>
      </trkpt>
      <trkpt lat="35.268040" lon="-113.149930">
        <ele>1631.764</ele>
        <time>2018-12-29T12:07:56Z</time>
      </trkpt>
      <trkpt lat="35.267730" lon="-113.150510">
        <ele>1631.546</ele>
        <time>2018-12-29T12:08:16Z</time>
      </trkpt>
      <trkpt lat="35.267430" lon="-113.151060">
        <ele>1631.250</ele>
        <time>2018-12-29T12:08:36Z</time>
      </trkpt>
      <trkpt lat="35.267120" lon="-113.151640">
        <ele>1631.212</ele>
        <time>2018-12-29T12:08:56Z</time>
      </trkpt>
      <trkpt lat="35.264370" lon="-113.156730">
        <ele>1625.332</ele>
        <time>2018-12-29T12:09:16Z</time>
      </trkpt>
      <trkpt lat="35.261200" lon="-113.162590">
        <ele>1619.705</ele>
        <time>2018-12-29T12:09:36Z</time>
      </trkpt>
      <trkpt lat="35.260570" lon="-113.163770">
        <ele>1619.408</ele>
        <time>2018-12-29T12:09:56Z</time>
      </trkpt>
      <trkpt lat="35.259800" lon="-113.165190">
        <ele>1619.834</ele>
        <time>2018-12-29T12:10:16Z</time>
      </trkpt>
      <trkpt lat="35.258520" lon="-113.167550">
        <ele>1622.482</ele>
        <time>2018-12-29T12:10:36Z</time>
      </trkpt>
      <trkpt lat="35.257050" lon="-113.170290">
        <ele>1619.437</ele>
        <time>2018-12-29T12:10:56Z</time>
      </trkpt>
      <trkpt lat="35.256320" lon="-113.171630">
        <ele>1619.568</ele>
        <time>2018-12-29T12:11:16Z</time>
      </trkpt>
      <trkpt lat="35.255780" lon="-113.172640">
        <ele>1619.513</ele>
        <time>2018-12-29T12:11:36Z</time>
      </trkpt>
      <trkpt lat="35.255410" lon="-113.173320">
        <ele>1619.563</ele>
        <time>2018-12-29T12:11:56Z</time>
      </trkpt>
      <trkpt lat="35.255000" lon="-113.174080">
        <ele>1619.445</ele>
        <time>2018-12-29T12:12:16Z</time>
      </trkpt>
      <trkpt lat="35.254410" lon="-113.175150">
        <ele>1619.469</ele>
        <time>2018-12-29T12:12:36Z</time>
      </trkpt>
      <trkpt lat="35.254250" lon="-113.175460">
        <ele>1619.588</ele>
        <time>2018-12-29T12:12:56Z</time>
      </trkpt>
      <trkpt lat="35.254010" lon="-113.175920">
        <ele>1619.524</ele>
        <time>2018-12-29T12:13:16Z</time>
      </trkpt>
      <trkpt lat="35.252230" lon="-113.179200">
        <ele>1622.626</ele>
        <time>2018-12-29T12:13:36Z</time>
      </trkpt>
      <trkpt lat="35.251460" lon="-113.180610">
        <ele>1622.508</ele>
        <time>2018-12-29T12:13:56Z</time>
      </trkpt>
      <trkpt lat="35.249930" lon="-113.183460">
        <ele>1618.941</ele>
        <time>2018-12-29T12:14:16Z</time>
      </trkpt>
      <trkpt lat="35.249630" lon="-113.184000">
        <ele>1618.999</ele>
        <time>2018-12-29T12:14:36Z</time>
      </trkpt>
      <trkpt lat="35.249250" lon="-113.184710">
        <ele>1618.714</ele>
        <time>2018-12-29T12:14:56Z</time>
      </trkpt>
      <trkpt lat="35.247630" lon="-113.187710">
        <ele>1615.625</ele>
        <time>2018-12-29T12:15:16Z</time>
      </trkpt>
      <trkpt lat="35.245390" lon="-113.191870">
        <ele>1616.210</ele>
        <time>2018-12-29T12:15:36Z</time>
      </trkpt>
      <trkpt lat="35.244900" lon="-113.192770">
        <ele>1616.370</ele>
        <time>2018-12-29T12:15:56Z</time>
      </trkpt>
      <trkpt lat="35.244650" lon="-113.193240">
        <ele>1616.552</ele>
        <time>2018-12-29T12:16:16Z</time>
      </trkpt>
      <trkpt lat="35.244270" lon="-113.193920">
        <ele>1617.416</ele>
        <time>2018-12-29T12:16:36Z</time>
      </trkpt>
      <trkpt lat="35.243990" lon="-113.194450">
        <ele>1621.835</ele>
        <time>2018-12-29T12:16:56Z</time>
      </trkpt>
      <trkpt lat="35.243800" lon="-113.194810">
        <ele>1622.686</ele>
        <time>2018-12-29T12:17:16Z</time>
      </trkpt>
      <trkpt lat="35.243190" lon="-113.195920">
        <ele>1625.714</ele>
        <time>2018-12-29T12:17:36Z</time>
      </trkpt>
      <trkpt lat="35.243010" lon="-113.196270">
        <ele>1626.808</ele>
        <time>2018-12-29T12:17:56Z</time>
      </trkpt>
      <trkpt lat="35.242620" lon="-113.196990">
        <ele>1629.616</ele>
        <time>2018-12-29T12:18:16Z</time>
      </trkpt>
      <trkpt lat="35.242190" lon="-113.197780">
        <ele>1634.564</ele>
        <time>2018-12-29T12:18:36Z</time>
      </trkpt>
      <trkpt lat="35.241670" lon="-113.198740">
        <ele>1633.799</ele>
        <time>2018-12-29T12:18:56Z</time>
      </trkpt>
      <trkpt lat="35.240120" lon="-113.201610">
        <ele>1633.950</ele>
        <time>2018-12-29T12:19:16Z</time>
      </trkpt>
      <trkpt lat="35.236200" lon="-113.208850">
        <ele>1604.265</ele>
        <time>2018-12-29T12:19:36Z</time>
      </trkpt>
      <trkpt lat="35.235770" lon="-113.209650">
        <ele>1603.995</ele>
        <time>2018-12-29T12:19:56Z</time>
      </trkpt>
      <trkpt lat="35.235710" lon="-113.209770">
        <ele>1603.677</ele>
        <time>2018-12-29T12:20:16Z</time>
      </trkpt>
      <trkpt lat="35.235390" lon="-113.210400">
        <ele>1602.131</ele>
        <time>2018-12-29T12:20:36Z</time>
      </trkpt>
      <trkpt lat="35.235030" lon="-113.211160">
        <ele>1601.242</ele>
        <time>2018-12-29T12:20:56Z</time>
      </trkpt>
      <trkpt lat="35.234790" lon="-113.211700">
        <ele>1601.222</ele>
        <time>2018-12-29T12:21:16Z</time>
      </trkpt>
      <trkpt lat="35.234540" lon="-113.212260">
        <ele>1601.214</ele>
        <time>2018-12-29T12:21:36Z</time>
      </trkpt>
      <trkpt lat="35.234330" lon="-113.212760">
        <ele>1601.108</ele>
        <time>2018-12-29T12:21:56Z</time>
      </trkpt>
      <trkpt lat="35.234190" lon="-113.213110">
        <ele>1601.147</ele>
        <time>2018-12-29T12:22:16Z</time>
      </trkpt>
      <trkpt lat="35.234070" lon="-113.213400">
        <ele>1601.135</ele>
        <time>2018-12-29T12:22:36Z</time>
      </trkpt>
      <trkpt lat="35.233780" lon="-113.214140">
        <ele>1601.110</ele>
        <time>2018-12-29T12:22:56Z</time>
      </trkpt>
      <trkpt lat="35.233420" lon="-113.215150">
        <ele>1601.181</ele>
        <time>2018-12-29T12:23:16Z</time>
      </trkpt>
      <trkpt lat="35.232950" lon="-113.216530">
        <ele>1601.226</ele>
        <time>2018-12-29T12:23:36Z</time>
      </trkpt>
      <trkpt lat="35.232880" lon="-113.216720">
        <ele>1601.266</ele>
        <time>2018-12-29T12:23:56Z</time>
      </trkpt>
      <trkpt lat="35.232820" lon="-113.216910">
        <ele>1601.398</ele>
        <time>2018-12-29T12:24:16Z</time>
      </trkpt>
      <trkpt lat="35.231250" lon="-113.221490">
        <ele>1604.242</ele>
        <time>2018-12-29T12:24:36Z</time>
      </trkpt>
      <trkpt lat="35.230680" lon="-113.223150">
        <ele>1604.296</ele>
        <time>2018-12-29T12:24:56Z</time>
      </trkpt>
      <trkpt lat="35.230310" lon="-113.224210">
        <ele>1604.831</ele>
        <time>2018-12-29T12:25:16Z</time>
      </trkpt>
      <trkpt lat="35.229640" lon="-113.226160">
        <ele>1607.424</ele>
        <time>2018-12-29T12:25:36Z</time>
      </trkpt>
      <trkpt lat="35.229230" lon="-113.227330">
        <ele>1608.308</ele>
        <time>2018-12-29T12:25:56Z</time>
      </trkpt>
      <trkpt lat="35.227710" lon="-113.231770">
        <ele>1610.442</ele>
        <time>2018-12-29T12:26:16Z</time>
      </trkpt>
      <trkpt lat="35.226690" lon="-113.234690">
        <ele>1614.780</ele>
        <time>2018-12-29T12:26:36Z</time>
      </trkpt>
      <trkpt lat="35.226560" lon="-113.235030">
        <ele>1615.055</ele>
        <time>2018-12-29T12:26:56Z</time>
      </trkpt>
      <trkpt lat="35.226300" lon="-113.235700">
        <ele>1615.896</ele>
        <time>2018-12-29T12:27:16Z</time>
      </trkpt>
      <trkpt lat="35.226160" lon="-113.236060">
        <ele>1616.331</ele>
        <time>2018-12-29T12:27:36Z</time>
      </trkpt>
      <trkpt lat="35.226060" lon="-113.236300">
        <ele>1616.461</ele>
        <time>2018-12-29T12:27:56Z</time>
      </trkpt>
      <trkpt lat="35.225770" lon="-113.236990">
        <ele>1617.563</ele>
        <time>2018-12-29T12:28:16Z</time>
      </trkpt>
      <trkpt lat="35.225610" lon="-113.237360">
        <ele>1618.637</ele>
        <time>2018-12-29T12:28:36Z</time>
      </trkpt>
      <trkpt lat="35.225470" lon="-113.237650">
        <ele>1619.785</ele>
        <time>2018-12-29T12:28:56Z</time>
      </trkpt>
      <trkpt lat="35.225320" lon="-113.237970">
        <ele>1620.789</ele>
        <time>2018-12-29T12:29:16Z</time>
      </trkpt>
      <trkpt lat="35.225010" lon="-113.238630">
        <ele>1621.517</ele>
        <time>2018-12-29T12:29:36Z</time>
      </trkpt>
      <trkpt lat="35.224700" lon="-113.239260">
        <ele>1625.008</ele>
        <time>2018-12-29T12:29:56Z</time>
      </trkpt>
      <trkpt lat="35.224480" lon="-113.239680">
        <ele>1625.911</ele>
        <time>2018-12-29T12:30:16Z</time>
      </trkpt>
      <trkpt lat="35.224300" lon="-113.240020">
        <ele>1626.249</ele>
        <time>2018-12-29T12:30:36Z</time>
      </trkpt>
      <trkpt lat="35.223990" lon="-113.240590">
        <ele>1625.224</ele>
        <time>2018-12-29T12:30:56Z</time>
      </trkpt>
      <trkpt lat="35.221420" lon="-113.245290">
        <ele>1626.555</ele>
        <time>2018-12-29T12:31:16Z</time>
      </trkpt>
      <trkpt lat="35.221370" lon="-113.245380">
        <ele>1626.580</ele>
        <time>2018-12-29T12:31:36Z</time>
      </trkpt>
      <trkpt lat="35.221310" lon="-113.245490">
        <ele>1626.570</ele>
        <time>2018-12-29T12:31:56Z</time>
      </trkpt>
      <trkpt lat="35.220730" lon="-113.246550">
        <ele>1627.512</ele>
        <time>2018-12-29T12:32:16Z</time>
      </trkpt>
      <trkpt lat="35.218900" lon="-113.249890">
        <ele>1628.326</ele>
        <time>2018-12-29T12:32:36Z</time>
      </trkpt>
      <trkpt lat="35.218350" lon="-113.250900">
        <ele>1629.116</ele>
        <time>2018-12-29T12:32:56Z</time>
      </trkpt>
      <trkpt lat="35.217380" lon="-113.252660">
        <ele>1631.876</ele>
        <time>2018-12-29T12:33:16Z</time>
      </trkpt>
      <trkpt lat="35.212240" lon="-113.262060">
        <ele>1639.913</ele>
        <time>2018-12-29T12:33:36Z</time>
      </trkpt>
      <trkpt lat="35.211440" lon="-113.263520">
        <ele>1641.108</ele>
        <time>2018-12-29T12:33:56Z</time>
      </trkpt>
      <trkpt lat="35.211100" lon="-113.264130">
        <ele>1641.514</ele>
        <time>2018-12-29T12:34:16Z</time>
      </trkpt>
      <trkpt lat="35.210700" lon="-113.264900">
        <ele>1642.222</ele>
        <time>2018-12-29T12:34:36Z</time>
      </trkpt>
      <trkpt lat="35.210530" lon="-113.265260">
        <ele>1642.647</ele>
        <time>2018-12-29T12:34:56Z</time>
      </trkpt>
      <trkpt lat="35.210380" lon="-113.265610">
        <ele>1642.378</ele>
        <time>2018-12-29T12:35:16Z</time>
      </trkpt>
      <trkpt lat="35.210250" lon="-113.265920">
        <ele>1641.943</ele>
        <time>2018-12-29T12:35:36Z</time>
      </trkpt>
      <trkpt lat="35.210100" lon="-113.266270">
        <ele>1642.243</ele>
        <time>2018-12-29T12:35:56Z</time>
      </trkpt>
      <trkpt lat="35.209960" lon="-113.266650">
        <ele>1642.125</ele>
        <time>2018-12-29T12:36:16Z</time>
      </trkpt>
      <trkpt lat="35.209770" lon="-113.267210">
        <ele>1642.059</ele>
        <time>2018-12-29T12:36:36Z</time>
      </trkpt>
      <trkpt lat="35.209600" lon="-113.267770">
        <ele>1641.553</ele>
        <time>2018-12-29T12:36:56Z</time>
      </trkpt>
      <trkpt lat="35.209470" lon="-113.268260">
        <ele>1640.704</ele>
        <time>2018-12-29T12:37:16Z</time>
      </trkpt>
      <trkpt lat="35.209410" lon="-113.268530">
        <ele>1640.814</ele>
        <time>2018-12-29T12:37:36Z</time>
      </trkpt>
      <trkpt lat="35.209260" lon="-113.269190">
        <ele>1640.608</ele>
        <time>2018-12-29T12:37:56Z</time>
      </trkpt>
      <trkpt lat="35.209190" lon="-113.269560">
        <ele>1639.868</ele>
        <time>2018-12-29T12:38:16Z</time>
      </trkpt>
      <trkpt lat="35.209080" lon="-113.270280">
        <ele>1638.066</ele>
        <time>2018-12-29T12:38:36Z</time>
      </trkpt>
      <trkpt lat="35.209020" lon="-113.270710">
        <ele>1637.781</ele>
        <time>2018-12-29T12:38:56Z</time>
      </trkpt>
      <trkpt lat="35.208960" lon="-113.271330">
        <ele>1636.932</ele>
        <time>2018-12-29T12:39:16Z</time>
      </trkpt>
      <trkpt lat="35.208940" lon="-113.271740">
        <ele>1637.257</ele>
        <time>2018-12-29T12:39:36Z</time>
      </trkpt>
      <trkpt lat="35.208920" lon="-113.272170">
        <ele>1637.467</ele>
        <time>2018-12-29T12:39:56Z</time>
      </trkpt>
      <trkpt lat="35.208910" lon="-113.272580">
        <ele>1637.839</ele>
        <time>2018-12-29T12:40:16Z</time>
      </trkpt>
      <trkpt lat="35.208910" lon="-113.272950">
        <ele>1638.253</ele>
        <time>2018-12-29T12:40:36Z</time>
      </trkpt>
      <trkpt lat="35.208920" lon="-113.273520">
        <ele>1634.852</ele>
        <time>2018-12-29T12:40:56Z</time>
      </trkpt>
      <trkpt lat="35.208930" lon="-113.273800">
        <ele>1634.553</ele>
        <time>2018-12-29T12:41:16Z</time>
      </trkpt>
      <trkpt lat="35.208940" lon="-113.274060">
        <ele>1634.508</ele>
        <time>2018-12-29T12:41:36Z</time>
      </trkpt>
      <trkpt lat="35.208980" lon="-113.274440">
        <ele>1634.408</ele>
        <time>2018-12-29T12:41:56Z</time>
      </trkpt>
      <trkpt lat="35.209000" lon="-113.274640">
        <ele>1634.448</ele>
        <time>2018-12-29T12:42:16Z</time>
      </trkpt>
      <trkpt lat="35.209060" lon="-113.275170">
        <ele>1634.816</ele>
        <time>2018-12-29T12:42:36Z</time>
      </trkpt>
      <trkpt lat="35.209230" lon="-113.276560">
        <ele>1629.611</ele>
        <time>2018-12-29T12:42:56Z</time>
      </trkpt>
      <trkpt lat="35.209430" lon="-113.278150">
        <ele>1628.572</ele>
        <time>2018-12-29T12:43:16Z</time>
      </trkpt>
      <trkpt lat="35.209530" lon="-113.278960">
        <ele>1631.357</ele>
        <time>2018-12-29T12:43:36Z</time>
      </trkpt>
      <trkpt lat="35.209550" lon="-113.279170">
        <ele>1631.977</ele>
        <time>2018-12-29T12:43:56Z</time>
      </trkpt>
      <trkpt lat="35.209570" lon="-113.279370">
        <ele>1632.689</ele>
        <time>2018-12-29T12:44:16Z</time>
      </trkpt>
      <trkpt lat="35.209610" lon="-113.279720">
        <ele>1633.543</ele>
        <time>2018-12-29T12:44:36Z</time>
      </trkpt>
      <trkpt lat="35.209650" lon="-113.280290">
        <ele>1633.765</ele>
        <time>2018-12-29T12:44:56Z</time>
      </trkpt>
      <trkpt lat="35.209680" lon="-113.280840">
        <ele>1632.368</ele>
        <time>2018-12-29T12:45:16Z</time>
      </trkpt>
      <trkpt lat="35.209710" lon="-113.281640">
        <ele>1626.814</ele>
        <time>2018-12-29T12:45:36Z</time>
      </trkpt>
      <trkpt lat="35.209720" lon="-113.282320">
        <ele>1626.408</ele>
        <time>2018-12-29T12:45:56Z</time>
      </trkpt>
      <trkpt lat="35.209720" lon="-113.282710">
        <ele>1627.059</ele>
        <time>2018-12-29T12:46:16Z</time>
      </trkpt>
      <trkpt lat="35.209710" lon="-113.283040">
        <ele>1626.387</ele>
        <time>2018-12-29T12:46:36Z</time>
      </trkpt>
      <trkpt lat="35.209700" lon="-113.283600">
        <ele>1624.722</ele>
        <time>2018-12-29T12:46:56Z</time>
      </trkpt>
      <trkpt lat="35.209680" lon="-113.283970">
        <ele>1623.453</ele>
        <time>2018-12-29T12:47:16Z</time>
      </trkpt>
      <trkpt lat="35.209650" lon="-113.284450">
        <ele>1622.158</ele>
        <time>2018-12-29T12:47:36Z</time>
      </trkpt>
      <trkpt lat="35.209640" lon="-113.284600">
        <ele>1621.798</ele>
        <time>2018-12-29T12:47:56Z</time>
      </trkpt>
      <trkpt lat="35.209630" lon="-113.284730">
        <ele>1621.460</ele>
        <time>2018-12-29T12:48:16Z</time>
      </trkpt>
      <trkpt lat="35.209620" lon="-113.284870">
        <ele>1621.194</ele>
        <time>2018-12-29T12:48:36Z</time>
      </trkpt>
      <trkpt lat="35.209610" lon="-113.285070">
        <ele>1620.514</ele>
        <time>2018-12-29T12:48:56Z</time>
      </trkpt>
      <trkpt lat="35.209570" lon="-113.285430">
        <ele>1620.154</ele>
        <time>2018-12-29T12:49:16Z</time>
      </trkpt>
      <trkpt lat="35.209540" lon="-113.285790">
        <ele>1619.209</ele>
        <time>2018-12-29T12:49:36Z</time>
      </trkpt>
      <trkpt lat="35.209490" lon="-113.286220">
        <ele>1617.808</ele>
        <time>2018-12-29T12:49:56Z</time>
      </trkpt>
      <trkpt lat="35.209370" lon="-113.287060">
        <ele>1616.494</ele>
        <time>2018-12-29T12:50:16Z</time>
      </trkpt>
      <trkpt lat="35.209180" lon="-113.288130">
        <ele>1616.442</ele>
        <time>2018-12-29T12:50:36Z</time>
      </trkpt>
      <trkpt lat="35.209060" lon="-113.288780">
        <ele>1616.317</ele>
        <time>2018-12-29T12:50:56Z</time>
      </trkpt>
      <trkpt lat="35.208950" lon="-113.289250">
        <ele>1616.638</ele>
        <time>2018-12-29T12:51:16Z</time>
      </trkpt>
      <trkpt lat="35.208760" lon="-113.290040">
        <ele>1616.523</ele>
        <time>2018-12-29T12:51:36Z</time>
      </trkpt>
      <trkpt lat="35.208640" lon="-113.290490">
        <ele>1616.943</ele>
        <time>2018-12-29T12:51:56Z</time>
      </trkpt>
      <trkpt lat="35.208420" lon="-113.291260">
        <ele>1620.595</ele>
        <time>2018-12-29T12:52:16Z</time>
      </trkpt>
      <trkpt lat="35.208230" lon="-113.291850">
        <ele>1616.929</ele>
        <time>2018-12-29T12:52:36Z</time>
      </trkpt>
      <trkpt lat="35.208030" lon="-113.292450">
        <ele>1618.252</ele>
        <time>2018-12-29T12:52:56Z</time>
      </trkpt>
      <trkpt lat="35.207810" lon="-113.293050">
        <ele>1617.453</ele>
        <time>2018-12-29T12:53:16Z</time>
      </trkpt>
      <trkpt lat="35.207660" lon="-113.293450">
        <ele>1615.508</ele>
        <time>2018-12-29T12:53:36Z</time>
      </trkpt>
      <trkpt lat="35.207390" lon="-113.294090">
        <ele>1611.408</ele>
        <time>2018-12-29T12:53:56Z</time>
      </trkpt>
      <trkpt lat="35.207340" lon="-113.294220">
        <ele>1610.448</ele>
        <time>2018-12-29T12:54:16Z</time>
      </trkpt>
      <trkpt lat="35.207310" lon="-113.294290">
        <ele>1610.096</ele>
        <time>2018-12-29T12:54:36Z</time>
      </trkpt>
      <trkpt lat="35.206920" lon="-113.295130">
        <ele>1606.851</ele>
        <time>2018-12-29T12:54:56Z</time>
      </trkpt>
      <trkpt lat="35.206750" lon="-113.295480">
        <ele>1605.782</ele>
        <time>2018-12-29T12:55:16Z</time>
      </trkpt>
      <trkpt lat="35.206480" lon="-113.296030">
        <ele>1602.567</ele>
        <time>2018-12-29T12:55:36Z</time>
      </trkpt>
      <trkpt lat="35.206090" lon="-113.296740">
        <ele>1598.447</ele>
        <time>2018-12-29T12:55:56Z</time>
      </trkpt>
      <trkpt lat="35.205860" lon="-113.297150">
        <ele>1598.189</ele>
        <time>2018-12-29T12:56:16Z</time>
      </trkpt>
      <trkpt lat="35.205580" lon="-113.297610">
        <ele>1598.173</ele>
        <time>2018-12-29T12:56:36Z</time>
      </trkpt>
      <trkpt lat="35.205550" lon="-113.297670">
        <ele>1598.162</ele>
        <time>2018-12-29T12:56:56Z</time>
      </trkpt>
      <trkpt lat="35.205510" lon="-113.297740">
        <ele>1598.183</ele>
        <time>2018-12-29T12:57:16Z</time>
      </trkpt>
      <trkpt lat="35.205500" lon="-113.297740">
        <ele>1598.111</ele>
        <time>2018-12-29T12:57:36Z</time>
      </trkpt>
      <trkpt lat="35.205390" lon="-113.297920">
        <ele>1598.108</ele>
        <time>2018-12-29T12:57:56Z</time>
      </trkpt>
      <trkpt lat="35.205160" lon="-113.298290">
        <ele>1598.199</ele>
        <time>2018-12-29T12:58:16Z</time>
      </trkpt>
      <trkpt lat="35.204860" lon="-113.298730">
        <ele>1598.157</ele>
        <time>2018-12-29T12:58:36Z</time>
      </trkpt>
      <trkpt lat="35.204520" lon="-113.299220">
        <ele>1598.032</ele>
        <time>2018-12-29T12:58:56Z</time>
      </trkpt>
      <trkpt lat="35.204280" lon="-113.299550">
        <ele>1597.793</ele>
        <time>2018-12-29T12:59:16Z</time>
      </trkpt>
      <trkpt lat="35.204040" lon="-113.299860">
        <ele>1595.818</ele>
        <time>2018-12-29T12:59:36Z</time>
      </trkpt>
      <trkpt lat="35.203590" lon="-113.300410">
        <ele>1593.438</ele>
        <time>2018-12-29T12:59:56Z</time>
      </trkpt>
      <trkpt lat="35.203470" lon="-113.300570">
        <ele>1593.180</ele>
        <time>2018-12-29T13:00:16Z</time>
      </trkpt>
      <trkpt lat="35.202860" lon="-113.301270">
        <ele>1592.144</ele>
        <time>2018-12-29T13:00:36Z</time>
      </trkpt>
      <trkpt lat="35.202570" lon="-113.301590">
        <ele>1592.058</ele>
        <time>2018-12-29T13:00:56Z</time>
      </trkpt>
      <trkpt lat="35.202370" lon="-113.301820">
        <ele>1592.052</ele>
        <time>2018-12-29T13:01:16Z</time>
      </trkpt>
      <trkpt lat="35.202040" lon="-113.302200">
        <ele>1592.917</ele>
        <time>2018-12-29T13:01:36Z</time>
      </trkpt>
      <trkpt lat="35.201480" lon="-113.302740">
        <ele>1596.508</ele>
        <time>2018-12-29T13:01:56Z</time>
      </trkpt>
      <trkpt lat="35.201050" lon="-113.303100">
        <ele>1596.878</ele>
        <time>2018-12-29T13:02:16Z</time>
      </trkpt>
      <trkpt lat="35.199530" lon="-113.304410">
        <ele>1594.716</ele>
        <time>2018-12-29T13:02:36Z</time>
      </trkpt>
      <trkpt lat="35.199220" lon="-113.304690">
        <ele>1594.741</ele>
        <time>2018-12-29T13:02:56Z</time>
      </trkpt>
      <trkpt lat="35.198980" lon="-113.304890">
        <ele>1593.622</ele>
        <time>2018-12-29T13:03:16Z</time>
      </trkpt>
      <trkpt lat="35.198260" lon="-113.305490">
        <ele>1586.477</ele>
        <time>2018-12-29T13:03:36Z</time>
      </trkpt>
      <trkpt lat="35.198100" lon="-113.305630">
        <ele>1587.047</ele>
        <time>2018-12-29T13:03:56Z</time>
      </trkpt>
      <trkpt lat="35.197370" lon="-113.306280">
        <ele>1590.639</ele>
        <time>2018-12-29T13:04:16Z</time>
      </trkpt>
      <trkpt lat="35.195240" lon="-113.308100">
        <ele>1588.823</ele>
        <time>2018-12-29T13:04:36Z</time>
      </trkpt>
      <trkpt lat="35.194800" lon="-113.308500">
        <ele>1592.561</ele>
        <time>2018-12-29T13:04:56Z</time>
      </trkpt>
      <trkpt lat="35.194350" lon="-113.308930">
        <ele>1594.921</ele>
        <time>2018-12-29T13:05:16Z</time>
      </trkpt>
      <trkpt lat="35.193870" lon="-113.309450">
        <ele>1594.213</ele>
        <time>2018-12-29T13:05:36Z</time>
      </trkpt>
      <trkpt lat="35.193610" lon="-113.309740">
        <ele>1592.708</ele>
        <time>2018-12-29T13:05:56Z</time>
      </trkpt>
      <trkpt lat="35.193530" lon="-113.309840">
        <ele>1592.269</ele>
        <time>2018-12-29T13:06:16Z</time>
      </trkpt>
      <trkpt lat="35.193440" lon="-113.309950">
        <ele>1591.997</ele>
        <time>2018-12-29T13:06:36Z</time>
      </trkpt>
      <trkpt lat="35.193390" lon="-113.310010">
        <ele>1591.842</ele>
        <time>2018-12-29T13:06:56Z</time>
      </trkpt>
      <trkpt lat="35.193330" lon="-113.310080">
        <ele>1591.543</ele>
        <time>2018-12-29T13:07:16Z</time>
      </trkpt>
      <trkpt lat="35.193070" lon="-113.310420">
        <ele>1590.248</ele>
        <time>2018-12-29T13:07:36Z</time>
      </trkpt>
      <trkpt lat="35.192730" lon="-113.310890">
        <ele>1590.258</ele>
        <time>2018-12-29T13:07:56Z</time>
      </trkpt>
      <trkpt lat="35.192550" lon="-113.311170">
        <ele>1590.170</ele>
        <time>2018-12-29T13:08:16Z</time>
      </trkpt>
      <trkpt lat="35.192380" lon="-113.311420">
        <ele>1589.994</ele>
        <time>2018-12-29T13:08:36Z</time>
      </trkpt>
      <trkpt lat="35.192150" lon="-113.311820">
        <ele>1589.955</ele>
        <time>2018-12-29T13:08:56Z</time>
      </trkpt>
      <trkpt lat="35.191980" lon="-113.312100">
        <ele>1590.907</ele>
        <time>2018-12-29T13:09:16Z</time>
      </trkpt>
      <trkpt lat="35.191830" lon="-113.312380">
        <ele>1591.117</ele>
        <time>2018-12-29T13:09:36Z</time>
      </trkpt>
      <trkpt lat="35.191700" lon="-113.312630">
        <ele>1588.908</ele>
        <time>2018-12-29T13:09:56Z</time>
      </trkpt>
      <trkpt lat="35.191540" lon="-113.312940">
        <ele>1586.528</ele>
        <time>2018-12-29T13:10:16Z</time>
      </trkpt>
      <trkpt lat="35.191290" lon="-113.313480">
        <ele>1585.846</ele>
        <time>2018-12-29T13:10:36Z</time>
      </trkpt>
      <trkpt lat="35.191210" lon="-113.313680">
        <ele>1586.021</ele>
        <time>2018-12-29T13:10:56Z</time>
      </trkpt>
      <trkpt lat="35.191080" lon="-113.313960">
        <ele>1585.912</ele>
        <time>2018-12-29T13:11:16Z</time>
      </trkpt>
      <trkpt lat="35.190890" lon="-113.314470">
        <ele>1583.477</ele>
        <time>2018-12-29T13:11:36Z</time>
      </trkpt>
      <trkpt lat="35.190700" lon="-113.315040">
        <ele>1580.717</ele>
        <time>2018-12-29T13:11:56Z</time>
      </trkpt>
      <trkpt lat="35.190510" lon="-113.315630">
        <ele>1574.379</ele>
        <time>2018-12-29T13:12:16Z</time>
      </trkpt>
      <trkpt lat="35.190380" lon="-113.316120">
        <ele>1571.443</ele>
        <time>2018-12-29T13:12:36Z</time>
      </trkpt>
      <trkpt lat="35.190240" lon="-113.316690">
        <ele>1567.149</ele>
        <time>2018-12-29T13:12:56Z</time>
      </trkpt>
      <trkpt lat="35.190200" lon="-113.316890">
        <ele>1566.302</ele>
        <time>2018-12-29T13:13:16Z</time>
      </trkpt>
      <trkpt lat="35.190180" lon="-113.316960">
        <ele>1566.622</ele>
        <time>2018-12-29T13:13:36Z</time>
      </trkpt>
      <trkpt lat="35.190130" lon="-113.317230">
        <ele>1567.208</ele>
        <time>2018-12-29T13:13:56Z</time>
      </trkpt>
      <trkpt lat="35.190040" lon="-113.317760">
        <ele>1566.087</ele>
        <time>2018-12-29T13:14:16Z</time>
      </trkpt>
      <trkpt lat="35.189990" lon="-113.318060">
        <ele>1564.815</ele>
        <time>2018-12-29T13:14:36Z</time>
      </trkpt>
      <trkpt lat="35.189950" lon="-113.318390">
        <ele>1563.560</ele>
        <time>2018-12-29T13:14:56Z</time>
      </trkpt>
      <trkpt lat="35.189920" lon="-113.318570">
        <ele>1563.381</ele>
        <time>2018-12-29T13:15:16Z</time>
      </trkpt>
      <trkpt lat="35.189900" lon="-113.318790">
        <ele>1564.756</ele>
        <time>2018-12-29T13:15:36Z</time>
      </trkpt>
      <trkpt lat="35.189860" lon="-113.319120">
        <ele>1566.236</ele>
        <time>2018-12-29T13:15:56Z</time>
      </trkpt>
      <trkpt lat="35.189830" lon="-113.319590">
        <ele>1568.738</ele>
        <time>2018-12-29T13:16:16Z</time>
      </trkpt>
      <trkpt lat="35.189810" lon="-113.319860">
        <ele>1571.942</ele>
        <time>2018-12-29T13:16:36Z</time>
      </trkpt>
      <trkpt lat="35.189800" lon="-113.320070">
        <ele>1572.421</ele>
        <time>2018-12-29T13:16:56Z</time>
      </trkpt>
      <trkpt lat="35.189800" lon="-113.320260">
        <ele>1573.141</ele>
        <time>2018-12-29T13:17:16Z</time>
      </trkpt>
      <trkpt lat="35.189790" lon="-113.320410">
        <ele>1573.605</ele>
        <time>2018-12-29T13:17:36Z</time>
      </trkpt>
      <trkpt lat="35.189790" lon="-113.320560">
        <ele>1574.908</ele>
        <time>2018-12-29T13:17:56Z</time>
      </trkpt>
      <trkpt lat="35.189790" lon="-113.320700">
        <ele>1576.295</ele>
        <time>2018-12-29T13:18:16Z</time>
      </trkpt>
      <trkpt lat="35.189790" lon="-113.320920">
        <ele>1578.863</ele>
        <time>2018-12-29T13:18:36Z</time>
      </trkpt>
      <trkpt lat="35.189790" lon="-113.321240">
        <ele>1580.558</ele>
        <time>2018-12-29T13:18:56Z</time>
      </trkpt>
      <trkpt lat="35.189800" lon="-113.321430">
        <ele>1581.059</ele>
        <time>2018-12-29T13:19:16Z</time>
      </trkpt>
      <trkpt lat="35.189810" lon="-113.321590">
        <ele>1581.824</ele>
        <time>2018-12-29T13:19:36Z</time>
      </trkpt>
      <trkpt lat="35.189820" lon="-113.321820">
        <ele>1583.734</ele>
        <time>2018-12-29T13:19:56Z</time>
      </trkpt>
      <trkpt lat="35.189840" lon="-113.322100">
        <ele>1586.026</ele>
        <time>2018-12-29T13:20:16Z</time>
      </trkpt>
      <trkpt lat="35.189850" lon="-113.322330">
        <ele>1586.350</ele>
        <time>2018-12-29T13:20:36Z</time>
      </trkpt>
      <trkpt lat="35.189870" lon="-113.322500">
        <ele>1586.294</ele>
        <time>2018-12-29T13:20:56Z</time>
      </trkpt>
      <trkpt lat="35.189900" lon="-113.322750">
        <ele>1586.357</ele>
        <time>2018-12-29T13:21:16Z</time>
      </trkpt>
      <trkpt lat="35.189970" lon="-113.323370">
        <ele>1586.722</ele>
        <time>2018-12-29T13:21:36Z</time>
      </trkpt>
      <trkpt lat="35.190050" lon="-113.323870">
        <ele>1588.708</ele>
        <time>2018-12-29T13:21:56Z</time>
      </trkpt>
      <trkpt lat="35.190110" lon="-113.324210">
        <ele>1590.952</ele>
        <time>2018-12-29T13:22:16Z</time>
      </trkpt>
      <trkpt lat="35.190260" lon="-113.325020">
        <ele>1592.060</ele>
        <time>2018-12-29T13:22:36Z</time>
      </trkpt>
      <trkpt lat="35.190380" lon="-113.325680">
        <ele>1592.045</ele>
        <time>2018-12-29T13:22:56Z</time>
      </trkpt>
      <trkpt lat="35.190580" lon="-113.326780">
        <ele>1594.076</ele>
        <time>2018-12-29T13:23:16Z</time>
      </trkpt>
      <trkpt lat="35.190700" lon="-113.327450">
        <ele>1594.341</ele>
        <time>2018-12-29T13:23:36Z</time>
      </trkpt>
      <trkpt lat="35.190800" lon="-113.328150">
        <ele>1592.261</ele>
        <time>2018-12-29T13:23:56Z</time>
      </trkpt>
      <trkpt lat="35.190860" lon="-113.328590">
        <ele>1591.773</ele>
        <time>2018-12-29T13:24:16Z</time>
      </trkpt>
      <trkpt lat="35.190940" lon="-113.329230">
        <ele>1590.737</ele>
        <time>2018-12-29T13:24:36Z</time>
      </trkpt>
      <trkpt lat="35.191030" lon="-113.330020">
        <ele>1590.528</ele>
        <time>2018-12-29T13:24:56Z</time>
      </trkpt>
      <trkpt lat="35.191120" lon="-113.331010">
        <ele>1588.789</ele>
        <time>2018-12-29T13:25:16Z</time>
      </trkpt>
      <trkpt lat="35.191170" lon="-113.331750">
        <ele>1585.617</ele>
        <time>2018-12-29T13:25:36Z</time>
      </trkpt>
      <trkpt lat="35.191180" lon="-113.331840">
        <ele>1585.308</ele>
        <time>2018-12-29T13:25:56Z</time>
      </trkpt>
      <trkpt lat="35.191190" lon="-113.332000">
        <ele>1584.335</ele>
        <time>2018-12-29T13:26:16Z</time>
      </trkpt>
      <trkpt lat="35.191190" lon="-113.332190">
        <ele>1583.153</ele>
        <time>2018-12-29T13:26:36Z</time>
      </trkpt>
      <trkpt lat="35.191230" lon="-113.332890">
        <ele>1579.348</ele>
        <time>2018-12-29T13:26:56Z</time>
      </trkpt>
      <trkpt lat="35.191250" lon="-113.333450">
        <ele>1576.219</ele>
        <time>2018-12-29T13:27:16Z</time>
      </trkpt>
      <trkpt lat="35.191260" lon="-113.334100">
        <ele>1573.174</ele>
        <time>2018-12-29T13:27:36Z</time>
      </trkpt>
      <trkpt lat="35.191270" lon="-113.334720">
        <ele>1570.614</ele>
        <time>2018-12-29T13:27:56Z</time>
      </trkpt>
      <trkpt lat="35.191260" lon="-113.335510">
        <ele>1567.636</ele>
        <time>2018-12-29T13:28:16Z</time>
      </trkpt>
      <trkpt lat="35.191240" lon="-113.338110">
        <ele>1560.270</ele>
        <time>2018-12-29T13:28:36Z</time>
      </trkpt>
      <trkpt lat="35.191230" lon="-113.339490">
        <ele>1558.299</ele>
        <time>2018-12-29T13:28:56Z</time>
      </trkpt>
      <trkpt lat="35.191210" lon="-113.341020">
        <ele>1556.807</ele>
        <time>2018-12-29T13:29:16Z</time>
      </trkpt>
      <trkpt lat="35.191200" lon="-113.342520">
        <ele>1556.327</ele>
        <time>2018-12-29T13:29:36Z</time>
      </trkpt>
      <trkpt lat="35.191180" lon="-113.343750">
        <ele>1556.708</ele>
        <time>2018-12-29T13:29:56Z</time>
      </trkpt>
      <trkpt lat="35.191170" lon="-113.345450">
        <ele>1556.962</ele>
        <time>2018-12-29T13:30:16Z</time>
      </trkpt>
      <trkpt lat="35.191160" lon="-113.346230">
        <ele>1557.510</ele>
        <time>2018-12-29T13:30:36Z</time>
      </trkpt>
      <trkpt lat="35.191160" lon="-113.346710">
        <ele>1558.495</ele>
        <time>2018-12-29T13:30:56Z</time>
      </trkpt>
      <trkpt lat="35.191160" lon="-113.347080">
        <ele>1557.846</ele>
        <time>2018-12-29T13:31:16Z</time>
      </trkpt>
      <trkpt lat="35.191150" lon="-113.348270">
        <ele>1555.591</ele>
        <time>2018-12-29T13:31:36Z</time>
      </trkpt>
      <trkpt lat="35.191140" lon="-113.349500">
        <ele>1554.861</ele>
        <time>2018-12-29T13:31:56Z</time>
      </trkpt>
      <trkpt lat="35.191130" lon="-113.350510">
        <ele>1553.113</ele>
        <time>2018-12-29T13:32:16Z</time>
      </trkpt>
      <trkpt lat="35.191120" lon="-113.351320">
        <ele>1550.837</ele>
        <time>2018-12-29T13:32:36Z</time>
      </trkpt>
      <trkpt lat="35.191110" lon="-113.351890">
        <ele>1549.881</ele>
        <time>2018-12-29T13:32:56Z</time>
      </trkpt>
      <trkpt lat="35.191090" lon="-113.354670">
        <ele>1544.961</ele>
        <time>2018-12-29T13:33:16Z</time>
      </trkpt>
      <trkpt lat="35.191070" lon="-113.356390">
        <ele>1546.817</ele>
        <time>2018-12-29T13:33:36Z</time>
      </trkpt>
      <trkpt lat="35.191060" lon="-113.357610">
        <ele>1546.708</ele>
        <time>2018-12-29T13:33:56Z</time>
      </trkpt>
      <trkpt lat="35.191060" lon="-113.358420">
        <ele>1545.521</ele>
        <time>2018-12-29T13:34:16Z</time>
      </trkpt>
      <trkpt lat="35.191050" lon="-113.359060">
        <ele>1544.329</ele>
        <time>2018-12-29T13:34:36Z</time>
      </trkpt>
      <trkpt lat="35.191040" lon="-113.359990">
        <ele>1542.884</ele>
        <time>2018-12-29T13:34:56Z</time>
      </trkpt>
      <trkpt lat="35.191040" lon="-113.360260">
        <ele>1542.525</ele>
        <time>2018-12-29T13:35:16Z</time>
      </trkpt>
      <trkpt lat="35.191040" lon="-113.360460">
        <ele>1542.610</ele>
        <time>2018-12-29T13:35:36Z</time>
      </trkpt>
      <trkpt lat="35.191030" lon="-113.360600">
        <ele>1542.570</ele>
        <time>2018-12-29T13:35:56Z</time>
      </trkpt>
      <trkpt lat="35.191030" lon="-113.361040">
        <ele>1542.432</ele>
        <time>2018-12-29T13:36:16Z</time>
      </trkpt>
      <trkpt lat="35.191020" lon="-113.362400">
        <ele>1540.946</ele>
        <time>2018-12-29T13:36:36Z</time>
      </trkpt>
      <trkpt lat="35.191000" lon="-113.364020">
        <ele>1543.084</ele>
        <time>2018-12-29T13:36:56Z</time>
      </trkpt>
      <trkpt lat="35.191000" lon="-113.364510">
        <ele>1543.207</ele>
        <time>2018-12-29T13:37:16Z</time>
      </trkpt>
      <trkpt lat="35.190990" lon="-113.365200">
        <ele>1543.117</ele>
        <time>2018-12-29T13:37:36Z</time>
      </trkpt>
      <trkpt lat="35.190990" lon="-113.365210">
        <ele>1543.008</ele>
        <time>2018-12-29T13:37:56Z</time>
      </trkpt>
      <trkpt lat="35.190990" lon="-113.366130">
        <ele>1542.231</ele>
        <time>2018-12-29T13:38:16Z</time>
      </trkpt>
      <trkpt lat="35.190970" lon="-113.367010">
        <ele>1539.469</ele>
        <time>2018-12-29T13:38:36Z</time>
      </trkpt>
      <trkpt lat="35.190950" lon="-113.370210">
        <ele>1536.494</ele>
        <time>2018-12-29T13:38:56Z</time>
      </trkpt>
      <trkpt lat="35.190960" lon="-113.370570">
        <ele>1536.895</ele>
        <time>2018-12-29T13:39:16Z</time>
      </trkpt>
      <trkpt lat="35.190950" lon="-113.370980">
        <ele>1536.810</ele>
        <time>2018-12-29T13:39:36Z</time>
      </trkpt>
      <trkpt lat="35.190950" lon="-113.371050">
        <ele>1536.810</ele>
        <time>2018-12-29T13:39:56Z</time>
      </trkpt>
      <trkpt lat="35.190940" lon="-113.371660">
        <ele>1536.132</ele>
        <time>2018-12-29T13:40:16Z</time>
      </trkpt>
      <trkpt lat="35.190930" lon="-113.372300">
        <ele>1533.266</ele>
        <time>2018-12-29T13:40:36Z</time>
      </trkpt>
      <trkpt lat="35.190900" lon="-113.374450">
        <ele>1530.191</ele>
        <time>2018-12-29T13:40:56Z</time>
      </trkpt>
      <trkpt lat="35.190890" lon="-113.375750">
        <ele>1528.481</ele>
        <time>2018-12-29T13:41:16Z</time>
      </trkpt>
      <trkpt lat="35.190890" lon="-113.376810">
        <ele>1528.119</ele>
        <time>2018-12-29T13:41:36Z</time>
      </trkpt>
      <trkpt lat="35.190880" lon="-113.377150">
        <ele>1528.108</ele>
        <time>2018-12-29T13:41:56Z</time>
      </trkpt>
      <trkpt lat="35.190870" lon="-113.377800">
        <ele>1528.152</ele>
        <time>2018-12-29T13:42:16Z</time>
      </trkpt>
      <trkpt lat="35.190860" lon="-113.379220">
        <ele>1529.030</ele>
        <time>2018-12-29T13:42:36Z</time>
      </trkpt>
      <trkpt lat="35.190820" lon="-113.383130">
        <ele>1536.125</ele>
        <time>2018-12-29T13:42:56Z</time>
      </trkpt>
      <trkpt lat="35.190820" lon="-113.384410">
        <ele>1535.986</ele>
        <time>2018-12-29T13:43:16Z</time>
      </trkpt>
      <trkpt lat="35.190790" lon="-113.386700">
        <ele>1529.781</ele>
        <time>2018-12-29T13:43:36Z</time>
      </trkpt>
      <trkpt lat="35.190770" lon="-113.388840">
        <ele>1521.361</ele>
        <time>2018-12-29T13:43:56Z</time>
      </trkpt>
      <trkpt lat="35.190750" lon="-113.390990">
        <ele>1514.783</ele>
        <time>2018-12-29T13:44:16Z</time>
      </trkpt>
      <trkpt lat="35.190740" lon="-113.392440">
        <ele>1511.337</ele>
        <time>2018-12-29T13:44:36Z</time>
      </trkpt>
      <trkpt lat="35.190730" lon="-113.393060">
        <ele>1511.799</ele>
        <time>2018-12-29T13:44:56Z</time>
      </trkpt>
      <trkpt lat="35.190740" lon="-113.393590">
        <ele>1512.907</ele>
        <time>2018-12-29T13:45:16Z</time>
      </trkpt>
      <trkpt lat="35.190750" lon="-113.394050">
        <ele>1511.627</ele>
        <time>2018-12-29T13:45:36Z</time>
      </trkpt>
      <trkpt lat="35.190760" lon="-113.394470">
        <ele>1511.208</ele>
        <time>2018-12-29T13:45:56Z</time>
      </trkpt>
      <trkpt lat="35.190800" lon="-113.395130">
        <ele>1511.942</ele>
        <time>2018-12-29T13:46:16Z</time>
      </trkpt>
      <trkpt lat="35.190850" lon="-113.395750">
        <ele>1512.040</ele>
        <time>2018-12-29T13:46:36Z</time>
      </trkpt>
      <trkpt lat="35.190890" lon="-113.396260">
        <ele>1512.575</ele>
        <time>2018-12-29T13:46:56Z</time>
      </trkpt>
      <trkpt lat="35.190950" lon="-113.396770">
        <ele>1518.116</ele>
        <time>2018-12-29T13:47:16Z</time>
      </trkpt>
      <trkpt lat="35.191030" lon="-113.397400">
        <ele>1523.661</ele>
        <time>2018-12-29T13:47:36Z</time>
      </trkpt>
      <trkpt lat="35.191090" lon="-113.397800">
        <ele>1525.561</ele>
        <time>2018-12-29T13:47:56Z</time>
      </trkpt>
      <trkpt lat="35.191150" lon="-113.398180">
        <ele>1527.173</ele>
        <time>2018-12-29T13:48:16Z</time>
      </trkpt>
      <trkpt lat="35.191240" lon="-113.398680">
        <ele>1525.177</ele>
        <time>2018-12-29T13:48:36Z</time>
      </trkpt>
      <trkpt lat="35.191310" lon="-113.399060">
        <ele>1525.382</ele>
        <time>2018-12-29T13:48:56Z</time>
      </trkpt>
      <trkpt lat="35.191430" lon="-113.399650">
        <ele>1524.143</ele>
        <time>2018-12-29T13:49:16Z</time>
      </trkpt>
      <trkpt lat="35.191600" lon="-113.400390">
        <ele>1519.817</ele>
        <time>2018-12-29T13:49:36Z</time>
      </trkpt>
      <trkpt lat="35.191700" lon="-113.400780">
        <ele>1522.308</ele>
        <time>2018-12-29T13:49:56Z</time>
      </trkpt>
      <trkpt lat="35.191770" lon="-113.401060">
        <ele>1524.111</ele>
        <time>2018-12-29T13:50:16Z</time>
      </trkpt>
      <trkpt lat="35.191840" lon="-113.401310">
        <ele>1525.319</ele>
        <time>2018-12-29T13:50:36Z</time>
      </trkpt>
      <trkpt lat="35.191920" lon="-113.401580">
        <ele>1523.784</ele>
        <time>2018-12-29T13:50:56Z</time>
      </trkpt>
      <trkpt lat="35.192000" lon="-113.401870">
        <ele>1523.195</ele>
        <time>2018-12-29T13:51:16Z</time>
      </trkpt>
      <trkpt lat="35.192090" lon="-113.402140">
        <ele>1525.590</ele>
        <time>2018-12-29T13:51:36Z</time>
      </trkpt>
      <trkpt lat="35.192180" lon="-113.402430">
        <ele>1523.480</ele>
        <time>2018-12-29T13:51:56Z</time>
      </trkpt>
      <trkpt lat="35.192320" lon="-113.402850">
        <ele>1524.182</ele>
        <time>2018-12-29T13:52:16Z</time>
      </trkpt>
      <trkpt lat="35.192440" lon="-113.403200">
        <ele>1525.626</ele>
        <time>2018-12-29T13:52:36Z</time>
      </trkpt>
      <trkpt lat="35.192570" lon="-113.403570">
        <ele>1530.841</ele>
        <time>2018-12-29T13:52:56Z</time>
      </trkpt>
      <trkpt lat="35.192670" lon="-113.403840">
        <ele>1534.581</ele>
        <time>2018-12-29T13:53:16Z</time>
      </trkpt>
      <trkpt lat="35.192790" lon="-113.404180">
        <ele>1538.209</ele>
        <time>2018-12-29T13:53:36Z</time>
      </trkpt>
      <trkpt lat="35.192950" lon="-113.404560">
        <ele>1535.908</ele>
        <time>2018-12-29T13:53:56Z</time>
      </trkpt>
      <trkpt lat="35.193130" lon="-113.405010">
        <ele>1539.237</ele>
        <time>2018-12-29T13:54:16Z</time>
      </trkpt>
      <trkpt lat="35.193240" lon="-113.405270">
        <ele>1537.215</ele>
        <time>2018-12-29T13:54:36Z</time>
      </trkpt>
      <trkpt lat="35.193370" lon="-113.405600">
        <ele>1537.040</ele>
        <time>2018-12-29T13:54:56Z</time>
      </trkpt>
      <trkpt lat="35.193570" lon="-113.406070">
        <ele>1535.791</ele>
        <time>2018-12-29T13:55:16Z</time>
      </trkpt>
      <trkpt lat="35.193900" lon="-113.406940">
        <ele>1544.236</ele>
        <time>2018-12-29T13:55:36Z</time>
      </trkpt>
      <trkpt lat="35.194290" lon="-113.407900">
        <ele>1545.896</ele>
        <time>2018-12-29T13:55:56Z</time>
      </trkpt>
      <trkpt lat="35.194430" lon="-113.408270">
        <ele>1544.398</ele>
        <time>2018-12-29T13:56:16Z</time>
      </trkpt>
      <trkpt lat="35.194560" lon="-113.408630">
        <ele>1545.582</ele>
        <time>2018-12-29T13:56:36Z</time>
      </trkpt>
      <trkpt lat="35.194630" lon="-113.408830">
        <ele>1542.754</ele>
        <time>2018-12-29T13:56:56Z</time>
      </trkpt>
      <trkpt lat="35.194710" lon="-113.409060">
        <ele>1540.556</ele>
        <time>2018-12-29T13:57:16Z</time>
      </trkpt>
      <trkpt lat="35.194790" lon="-113.409370">
        <ele>1538.811</ele>
        <time>2018-12-29T13:57:36Z</time>
      </trkpt>
      <trkpt lat="35.194840" lon="-113.409580">
        <ele>1538.808</ele>
        <time>2018-12-29T13:57:56Z</time>
      </trkpt>
      <trkpt lat="35.194870" lon="-113.409760">
        <ele>1539.068</ele>
        <time>2018-12-29T13:58:16Z</time>
      </trkpt>
      <trkpt lat="35.194910" lon="-113.409980">
        <ele>1540.486</ele>
        <time>2018-12-29T13:58:36Z</time>
      </trkpt>
      <trkpt lat="35.194940" lon="-113.410170">
        <ele>1542.531</ele>
        <time>2018-12-29T13:58:56Z</time>
      </trkpt>
      <trkpt lat="35.194970" lon="-113.410380">
        <ele>1543.682</ele>
        <time>2018-12-29T13:59:16Z</time>
      </trkpt>
      <trkpt lat="35.194990" lon="-113.410680">
        <ele>1545.977</ele>
        <time>2018-12-29T13:59:36Z</time>
      </trkpt>
      <trkpt lat="35.195010" lon="-113.410980">
        <ele>1546.357</ele>
        <time>2018-12-29T13:59:56Z</time>
      </trkpt>
      <trkpt lat="35.195010" lon="-113.411180">
        <ele>1545.599</ele>
        <time>2018-12-29T14:00:16Z</time>
      </trkpt>
      <trkpt lat="35.195010" lon="-113.411370">
        <ele>1545.183</ele>
        <time>2018-12-29T14:00:36Z</time>
      </trkpt>
      <trkpt lat="35.195000" lon="-113.411610">
        <ele>1545.466</ele>
        <time>2018-12-29T14:00:56Z</time>
      </trkpt>
      <trkpt lat="35.194990" lon="-113.411810">
        <ele>1545.729</ele>
        <time>2018-12-29T14:01:16Z</time>
      </trkpt>
      <trkpt lat="35.194970" lon="-113.412030">
        <ele>1546.221</ele>
        <time>2018-12-29T14:01:36Z</time>
      </trkpt>
      <trkpt lat="35.194930" lon="-113.412300">
        <ele>1547.108</ele>
        <time>2018-12-29T14:01:56Z</time>
      </trkpt>
      <trkpt lat="35.194870" lon="-113.412680">
        <ele>1545.119</ele>
        <time>2018-12-29T14:02:16Z</time>
      </trkpt>
      <trkpt lat="35.194840" lon="-113.412820">
        <ele>1544.037</ele>
        <time>2018-12-29T14:02:36Z</time>
      </trkpt>
      <trkpt lat="35.194800" lon="-113.413020">
        <ele>1542.752</ele>
        <time>2018-12-29T14:02:56Z</time>
      </trkpt>
      <trkpt lat="35.194750" lon="-113.413230">
        <ele>1542.153</ele>
        <time>2018-12-29T14:03:16Z</time>
      </trkpt>
      <trkpt lat="35.194660" lon="-113.413520">
        <ele>1543.548</ele>
        <time>2018-12-29T14:03:36Z</time>
      </trkpt>
      <trkpt lat="35.194580" lon="-113.413780">
        <ele>1543.558</ele>
        <time>2018-12-29T14:03:56Z</time>
      </trkpt>
      <trkpt lat="35.194470" lon="-113.414050">
        <ele>1539.910</ele>
        <time>2018-12-29T14:04:16Z</time>
      </trkpt>
      <trkpt lat="35.194400" lon="-113.414230">
        <ele>1538.934</ele>
        <time>2018-12-29T14:04:36Z</time>
      </trkpt>
      <trkpt lat="35.194320" lon="-113.414380">
        <ele>1538.778</ele>
        <time>2018-12-29T14:04:56Z</time>
      </trkpt>
      <trkpt lat="35.194210" lon="-113.414610">
        <ele>1536.533</ele>
        <time>2018-12-29T14:05:16Z</time>
      </trkpt>
      <trkpt lat="35.194080" lon="-113.414850">
        <ele>1534.626</ele>
        <time>2018-12-29T14:05:36Z</time>
      </trkpt>
      <trkpt lat="35.193940" lon="-113.415090">
        <ele>1531.008</ele>
        <time>2018-12-29T14:05:56Z</time>
      </trkpt>
      <trkpt lat="35.193810" lon="-113.415290">
        <ele>1529.420</ele>
        <time>2018-12-29T14:06:16Z</time>
      </trkpt>
      <trkpt lat="35.193710" lon="-113.415430">
        <ele>1528.378</ele>
        <time>2018-12-29T14:06:36Z</time>
      </trkpt>
      <trkpt lat="35.193570" lon="-113.415610">
        <ele>1525.393</ele>
        <time>2018-12-29T14:06:56Z</time>
      </trkpt>
      <trkpt lat="35.193380" lon="-113.415870">
        <ele>1524.514</ele>
        <time>2018-12-29T14:07:16Z</time>
      </trkpt>
      <trkpt lat="35.193130" lon="-113.416200">
        <ele>1523.559</ele>
        <time>2018-12-29T14:07:36Z</time>
      </trkpt>
      <trkpt lat="35.192650" lon="-113.416860">
        <ele>1519.179</ele>
        <time>2018-12-29T14:07:56Z</time>
      </trkpt>
      <trkpt lat="35.192200" lon="-113.417450">
        <ele>1517.081</ele>
        <time>2018-12-29T14:08:16Z</time>
      </trkpt>
      <trkpt lat="35.191820" lon="-113.417960">
        <ele>1515.965</ele>
        <time>2018-12-29T14:08:36Z</time>
      </trkpt>
      <trkpt lat="35.191520" lon="-113.418360">
        <ele>1513.252</ele>
        <time>2018-12-29T14:08:56Z</time>
      </trkpt>
      <trkpt lat="35.191220" lon="-113.418750">
        <ele>1510.653</ele>
        <time>2018-12-29T14:09:16Z</time>
      </trkpt>
      <trkpt lat="35.191090" lon="-113.418940">
        <ele>1508.808</ele>
        <time>2018-12-29T14:09:36Z</time>
      </trkpt>
      <trkpt lat="35.190940" lon="-113.419160">
        <ele>1506.908</ele>
        <time>2018-12-29T14:09:56Z</time>
      </trkpt>
      <trkpt lat="35.190810" lon="-113.419370">
        <ele>1505.728</ele>
        <time>2018-12-29T14:10:16Z</time>
      </trkpt>
      <trkpt lat="35.190740" lon="-113.419470">
        <ele>1505.186</ele>
        <time>2018-12-29T14:10:36Z</time>
      </trkpt>
      <trkpt lat="35.190680" lon="-113.419590">
        <ele>1504.481</ele>
        <time>2018-12-29T14:10:56Z</time>
      </trkpt>
      <trkpt lat="35.190560" lon="-113.419790">
        <ele>1503.382</ele>
        <time>2018-12-29T14:11:16Z</time>
      </trkpt>
      <trkpt lat="35.190440" lon="-113.420030">
        <ele>1502.767</ele>
        <time>2018-12-29T14:11:36Z</time>
      </trkpt>
      <trkpt lat="35.190340" lon="-113.420270">
        <ele>1502.427</ele>
        <time>2018-12-29T14:11:56Z</time>
      </trkpt>
      <trkpt lat="35.190290" lon="-113.420390">
        <ele>1502.359</ele>
        <time>2018-12-29T14:12:16Z</time>
      </trkpt>
      <trkpt lat="35.190240" lon="-113.420510">
        <ele>1502.283</ele>
        <time>2018-12-29T14:12:36Z</time>
      </trkpt>
      <trkpt lat="35.190200" lon="-113.420620">
        <ele>1501.921</ele>
        <time>2018-12-29T14:12:56Z</time>
      </trkpt>
      <trkpt lat="35.190150" lon="-113.420740">
        <ele>1501.441</ele>
        <time>2018-12-29T14:13:16Z</time>
      </trkpt>
      <trkpt lat="35.190070" lon="-113.421000">
        <ele>1499.505</ele>
        <time>2018-12-29T14:13:36Z</time>
      </trkpt>
      <trkpt lat="35.190000" lon="-113.421250">
        <ele>1497.608</ele>
        <time>2018-12-29T14:13:56Z</time>
      </trkpt>
      <trkpt lat="35.189930" lon="-113.421510">
        <ele>1495.085</ele>
        <time>2018-12-29T14:14:16Z</time>
      </trkpt>
      <trkpt lat="35.189900" lon="-113.421680">
        <ele>1494.613</ele>
        <time>2018-12-29T14:14:36Z</time>
      </trkpt>
      <trkpt lat="35.189860" lon="-113.421890">
        <ele>1494.448</ele>
        <time>2018-12-29T14:14:56Z</time>
      </trkpt>
      <trkpt lat="35.189830" lon="-113.422090">
        <ele>1492.389</ele>
        <time>2018-12-29T14:15:16Z</time>
      </trkpt>
      <trkpt lat="35.189800" lon="-113.422250">
        <ele>1490.654</ele>
        <time>2018-12-29T14:15:36Z</time>
      </trkpt>
      <trkpt lat="35.189780" lon="-113.422500">
        <ele>1489.484</ele>
        <time>2018-12-29T14:15:56Z</time>
      </trkpt>
      <trkpt lat="35.189760" lon="-113.422790">
        <ele>1489.846</ele>
        <time>2018-12-29T14:16:16Z</time>
      </trkpt>
      <trkpt lat="35.189750" lon="-113.423030">
        <ele>1490.380</ele>
        <time>2018-12-29T14:16:36Z</time>
      </trkpt>
      <trkpt lat="35.189740" lon="-113.423200">
        <ele>1490.147</ele>
        <time>2018-12-29T14:16:56Z</time>
      </trkpt>
      <trkpt lat="35.189740" lon="-113.423370">
        <ele>1489.329</ele>
        <time>2018-12-29T14:17:16Z</time>
      </trkpt>
      <trkpt lat="35.189750" lon="-113.423540">
        <ele>1488.621</ele>
        <time>2018-12-29T14:17:36Z</time>
      </trkpt>
      <trkpt lat="35.189760" lon="-113.423750">
        <ele>1488.008</ele>
        <time>2018-12-29T14:17:56Z</time>
      </trkpt>
      <trkpt lat="35.189780" lon="-113.424040">
        <ele>1486.957</ele>
        <time>2018-12-29T14:18:16Z</time>
      </trkpt>
      <trkpt lat="35.189800" lon="-113.424280">
        <ele>1485.635</ele>
        <time>2018-12-29T14:18:36Z</time>
      </trkpt>
      <trkpt lat="35.189900" lon="-113.425170">
        <ele>1480.320</ele>
        <time>2018-12-29T14:18:56Z</time>
      </trkpt>
      <trkpt lat="35.189990" lon="-113.425910">
        <ele>1475.791</ele>
        <time>2018-12-29T14:19:16Z</time>
      </trkpt>
      <trkpt lat="35.190090" lon="-113.426810">
        <ele>1470.946</ele>
        <time>2018-12-29T14:19:36Z</time>
      </trkpt>
      <trkpt lat="35.190150" lon="-113.427370">
        <ele>1470.516</ele>
        <time>2018-12-29T14:19:56Z</time>
      </trkpt>
      <trkpt lat="35.190230" lon="-113.428030">
        <ele>1467.838</ele>
        <time>2018-12-29T14:20:16Z</time>
      </trkpt>
      <trkpt lat="35.190290" lon="-113.428530">
        <ele>1466.672</ele>
        <time>2018-12-29T14:20:36Z</time>
      </trkpt>
      <trkpt lat="35.190340" lon="-113.428990">
        <ele>1465.311</ele>
        <time>2018-12-29T14:20:56Z</time>
      </trkpt>
      <trkpt lat="35.190550" lon="-113.430800">
        <ele>1465.121</ele>
        <time>2018-12-29T14:21:16Z</time>
      </trkpt>
      <trkpt lat="35.190620" lon="-113.431470">
        <ele>1462.603</ele>
        <time>2018-12-29T14:21:36Z</time>
      </trkpt>
      <trkpt lat="35.190710" lon="-113.432240">
        <ele>1460.808</ele>
        <time>2018-12-29T14:21:56Z</time>
      </trkpt>
      <trkpt lat="35.190760" lon="-113.432660">
        <ele>1460.324</ele>
        <time>2018-12-29T14:22:16Z</time>
      </trkpt>
      <trkpt lat="35.190820" lon="-113.433180">
        <ele>1459.042</ele>
        <time>2018-12-29T14:22:36Z</time>
      </trkpt>
      <trkpt lat="35.190910" lon="-113.433980">
        <ele>1459.977</ele>
        <time>2018-12-29T14:22:56Z</time>
      </trkpt>
      <trkpt lat="35.190950" lon="-113.434290">
        <ele>1461.148</ele>
        <time>2018-12-29T14:23:16Z</time>
      </trkpt>
      <trkpt lat="35.190990" lon="-113.434720">
        <ele>1459.953</ele>
        <time>2018-12-29T14:23:36Z</time>
      </trkpt>
      <trkpt lat="35.191010" lon="-113.434900">
        <ele>1459.223</ele>
        <time>2018-12-29T14:23:56Z</time>
      </trkpt>
      <trkpt lat="35.191040" lon="-113.435170">
        <ele>1456.895</ele>
        <time>2018-12-29T14:24:16Z</time>
      </trkpt>
      <trkpt lat="35.191060" lon="-113.435430">
        <ele>1456.449</ele>
        <time>2018-12-29T14:24:36Z</time>
      </trkpt>
      <trkpt lat="35.191080" lon="-113.435690">
        <ele>1456.265</ele>
        <time>2018-12-29T14:24:56Z</time>
      </trkpt>
      <trkpt lat="35.191090" lon="-113.435930">
        <ele>1455.568</ele>
        <time>2018-12-29T14:25:16Z</time>
      </trkpt>
      <trkpt lat="35.191100" lon="-113.436190">
        <ele>1456.514</ele>
        <time>2018-12-29T14:25:36Z</time>
      </trkpt>
      <trkpt lat="35.191100" lon="-113.436590">
        <ele>1460.208</ele>
        <time>2018-12-29T14:25:56Z</time>
      </trkpt>
      <trkpt lat="35.191100" lon="-113.436930">
        <ele>1461.049</ele>
        <time>2018-12-29T14:26:16Z</time>
      </trkpt>
      <trkpt lat="35.191080" lon="-113.437370">
        <ele>1460.447</ele>
        <time>2018-12-29T14:26:36Z</time>
      </trkpt>
      <trkpt lat="35.191050" lon="-113.437800">
        <ele>1458.272</ele>
        <time>2018-12-29T14:26:56Z</time>
      </trkpt>
      <trkpt lat="35.191020" lon="-113.438220">
        <ele>1456.133</ele>
        <time>2018-12-29T14:27:16Z</time>
      </trkpt>
      <trkpt lat="35.190970" lon="-113.438600">
        <ele>1452.658</ele>
        <time>2018-12-29T14:27:36Z</time>
      </trkpt>
      <trkpt lat="35.190920" lon="-113.438970">
        <ele>1451.438</ele>
        <time>2018-12-29T14:27:56Z</time>
      </trkpt>
      <trkpt lat="35.190870" lon="-113.439270">
        <ele>1450.760</ele>
        <time>2018-12-29T14:28:16Z</time>
      </trkpt>
      <trkpt lat="35.190770" lon="-113.439780">
        <ele>1449.594</ele>
        <time>2018-12-29T14:28:36Z</time>
      </trkpt>
      <trkpt lat="35.190670" lon="-113.440220">
        <ele>1450.766</ele>
        <time>2018-12-29T14:28:56Z</time>
      </trkpt>
      <trkpt lat="35.190520" lon="-113.440740">
        <ele>1453.529</ele>
        <time>2018-12-29T14:29:16Z</time>
      </trkpt>
      <trkpt lat="35.190390" lon="-113.441170">
        <ele>1455.721</ele>
        <time>2018-12-29T14:29:36Z</time>
      </trkpt>
      <trkpt lat="35.190220" lon="-113.441660">
        <ele>1453.208</ele>
        <time>2018-12-29T14:29:56Z</time>
      </trkpt>
      <trkpt lat="35.190110" lon="-113.441990">
        <ele>1448.919</ele>
        <time>2018-12-29T14:30:16Z</time>
      </trkpt>
      <trkpt lat="35.189970" lon="-113.442350">
        <ele>1445.487</ele>
        <time>2018-12-29T14:30:36Z</time>
      </trkpt>
      <trkpt lat="35.189810" lon="-113.442730">
        <ele>1443.982</ele>
        <time>2018-12-29T14:30:56Z</time>
      </trkpt>
      <trkpt lat="35.189600" lon="-113.443210">
        <ele>1441.633</ele>
        <time>2018-12-29T14:31:16Z</time>
      </trkpt>
      <trkpt lat="35.189490" lon="-113.443460">
        <ele>1440.168</ele>
        <time>2018-12-29T14:31:36Z</time>
      </trkpt>
      <trkpt lat="35.189280" lon="-113.443950">
        <ele>1439.848</ele>
        <time>2018-12-29T14:31:56Z</time>
      </trkpt>
      <trkpt lat="35.189120" lon="-113.444310">
        <ele>1436.390</ele>
        <time>2018-12-29T14:32:16Z</time>
      </trkpt>
      <trkpt lat="35.188890" lon="-113.444840">
        <ele>1433.724</ele>
        <time>2018-12-29T14:32:36Z</time>
      </trkpt>
      <trkpt lat="35.188670" lon="-113.445360">
        <ele>1433.545</ele>
        <time>2018-12-29T14:32:56Z</time>
      </trkpt>
      <trkpt lat="35.188260" lon="-113.446290">
        <ele>1432.247</ele>
        <time>2018-12-29T14:33:16Z</time>
      </trkpt>
      <trkpt lat="35.187900" lon="-113.447130">
        <ele>1429.011</ele>
        <time>2018-12-29T14:33:36Z</time>
      </trkpt>
      <trkpt lat="35.187740" lon="-113.447480">
        <ele>1428.208</ele>
        <time>2018-12-29T14:33:56Z</time>
      </trkpt>
      <trkpt lat="35.187510" lon="-113.448000">
        <ele>1427.897</ele>
        <time>2018-12-29T14:34:16Z</time>
      </trkpt>
      <trkpt lat="35.187260" lon="-113.448570">
        <ele>1427.355</ele>
        <time>2018-12-29T14:34:36Z</time>
      </trkpt>
      <trkpt lat="35.187060" lon="-113.449040">
        <ele>1427.030</ele>
        <time>2018-12-29T14:34:56Z</time>
      </trkpt>
      <trkpt lat="35.186820" lon="-113.449630">
        <ele>1425.711</ele>
        <time>2018-12-29T14:35:16Z</time>
      </trkpt>
      <trkpt lat="35.186670" lon="-113.449990">
        <ele>1425.176</ele>
        <time>2018-12-29T14:35:36Z</time>
      </trkpt>
      <trkpt lat="35.186530" lon="-113.450360">
        <ele>1424.746</ele>
        <time>2018-12-29T14:35:56Z</time>
      </trkpt>
      <trkpt lat="35.186390" lon="-113.450740">
        <ele>1424.128</ele>
        <time>2018-12-29T14:36:16Z</time>
      </trkpt>
      <trkpt lat="35.186350" lon="-113.450860">
        <ele>1423.962</ele>
        <time>2018-12-29T14:36:36Z</time>
      </trkpt>
      <trkpt lat="35.186280" lon="-113.451060">
        <ele>1423.643</ele>
        <time>2018-12-29T14:36:56Z</time>
      </trkpt>
      <trkpt lat="35.186200" lon="-113.451300">
        <ele>1423.364</ele>
        <time>2018-12-29T14:37:16Z</time>
      </trkpt>
      <trkpt lat="35.186100" lon="-113.451570">
        <ele>1423.010</ele>
        <time>2018-12-29T14:37:36Z</time>
      </trkpt>
      <trkpt lat="35.186030" lon="-113.451800">
        <ele>1422.808</ele>
        <time>2018-12-29T14:37:56Z</time>
      </trkpt>
      <trkpt lat="35.185940" lon="-113.452080">
        <ele>1422.517</ele>
        <time>2018-12-29T14:38:16Z</time>
      </trkpt>
      <trkpt lat="35.185880" lon="-113.452270">
        <ele>1422.335</ele>
        <time>2018-12-29T14:38:36Z</time>
      </trkpt>
      <trkpt lat="35.185790" lon="-113.452560">
        <ele>1422.030</ele>
        <time>2018-12-29T14:38:56Z</time>
      </trkpt>
      <trkpt lat="35.185680" lon="-113.452940">
        <ele>1421.521</ele>
        <time>2018-12-29T14:39:16Z</time>
      </trkpt>
      <trkpt lat="35.185600" lon="-113.453210">
        <ele>1421.386</ele>
        <time>2018-12-29T14:39:36Z</time>
      </trkpt>
      <trkpt lat="35.185540" lon="-113.453460">
        <ele>1421.226</ele>
        <time>2018-12-29T14:39:56Z</time>
      </trkpt>
      <trkpt lat="35.185450" lon="-113.453790">
        <ele>1421.378</ele>
        <time>2018-12-29T14:40:16Z</time>
      </trkpt>
      <trkpt lat="35.185350" lon="-113.454200">
        <ele>1421.182</ele>
        <time>2018-12-29T14:40:36Z</time>
      </trkpt>
      <trkpt lat="35.185230" lon="-113.454710">
        <ele>1420.275</ele>
        <time>2018-12-29T14:40:56Z</time>
      </trkpt>
      <trkpt lat="35.185110" lon="-113.455240">
        <ele>1418.728</ele>
        <time>2018-12-29T14:41:16Z</time>
      </trkpt>
      <trkpt lat="35.185010" lon="-113.455730">
        <ele>1417.920</ele>
        <time>2018-12-29T14:41:36Z</time>
      </trkpt>
      <trkpt lat="35.184920" lon="-113.456180">
        <ele>1417.508</ele>
        <time>2018-12-29T14:41:56Z</time>
      </trkpt>
      <trkpt lat="35.184830" lon="-113.456680">
        <ele>1417.280</ele>
        <time>2018-12-29T14:42:16Z</time>
      </trkpt>
      <trkpt lat="35.184760" lon="-113.457170">
        <ele>1416.968</ele>
        <time>2018-12-29T14:42:36Z</time>
      </trkpt>
      <trkpt lat="35.184690" lon="-113.457660">
        <ele>1417.263</ele>
        <time>2018-12-29T14:42:56Z</time>
      </trkpt>
      <trkpt lat="35.184630" lon="-113.458170">
        <ele>1418.654</ele>
        <time>2018-12-29T14:43:16Z</time>
      </trkpt>
      <trkpt lat="35.184580" lon="-113.458570">
        <ele>1420.529</ele>
        <time>2018-12-29T14:43:36Z</time>
      </trkpt>
      <trkpt lat="35.184540" lon="-113.458960">
        <ele>1421.199</ele>
        <time>2018-12-29T14:43:56Z</time>
      </trkpt>
      <trkpt lat="35.184480" lon="-113.459650">
        <ele>1420.811</ele>
        <time>2018-12-29T14:44:16Z</time>
      </trkpt>
      <trkpt lat="35.184450" lon="-113.460140">
        <ele>1417.285</ele>
        <time>2018-12-29T14:44:36Z</time>
      </trkpt>
      <trkpt lat="35.184410" lon="-113.460760">
        <ele>1414.751</ele>
        <time>2018-12-29T14:44:56Z</time>
      </trkpt>
      <trkpt lat="35.184400" lon="-113.461090">
        <ele>1411.901</ele>
        <time>2018-12-29T14:45:16Z</time>
      </trkpt>
      <trkpt lat="35.184390" lon="-113.461280">
        <ele>1409.511</ele>
        <time>2018-12-29T14:45:36Z</time>
      </trkpt>
      <trkpt lat="35.184380" lon="-113.461690">
        <ele>1404.908</ele>
        <time>2018-12-29T14:45:56Z</time>
      </trkpt>
      <trkpt lat="35.184380" lon="-113.462090">
        <ele>1406.948</ele>
        <time>2018-12-29T14:46:16Z</time>
      </trkpt>
      <trkpt lat="35.184380" lon="-113.462290">
        <ele>1409.446</ele>
        <time>2018-12-29T14:46:36Z</time>
      </trkpt>
      <trkpt lat="35.184380" lon="-113.462850">
        <ele>1411.761</ele>
        <time>2018-12-29T14:46:56Z</time>
      </trkpt>
      <trkpt lat="35.184400" lon="-113.463710">
        <ele>1412.332</ele>
        <time>2018-12-29T14:47:16Z</time>
      </trkpt>
      <trkpt lat="35.184440" lon="-113.464380">
        <ele>1412.617</ele>
        <time>2018-12-29T14:47:36Z</time>
      </trkpt>
      <trkpt lat="35.184480" lon="-113.465310">
        <ele>1412.347</ele>
        <time>2018-12-29T14:47:56Z</time>
      </trkpt>
      <trkpt lat="35.184480" lon="-113.465430">
        <ele>1412.189</ele>
        <time>2018-12-29T14:48:16Z</time>
      </trkpt>
      <trkpt lat="35.184490" lon="-113.465580">
        <ele>1412.293</ele>
        <time>2018-12-29T14:48:36Z</time>
      </trkpt>
      <trkpt lat="35.184490" lon="-113.465800">
        <ele>1412.183</ele>
        <time>2018-12-29T14:48:56Z</time>
      </trkpt>
      <trkpt lat="35.184480" lon="-113.466010">
        <ele>1411.825</ele>
        <time>2018-12-29T14:49:16Z</time>
      </trkpt>
      <trkpt lat="35.184470" lon="-113.466280">
        <ele>1411.817</ele>
        <time>2018-12-29T14:49:36Z</time>
      </trkpt>
      <trkpt lat="35.184460" lon="-113.466450">
        <ele>1411.908</ele>
        <time>2018-12-29T14:49:56Z</time>
      </trkpt>
      <trkpt lat="35.184440" lon="-113.466640">
        <ele>1411.981</ele>
        <time>2018-12-29T14:50:16Z</time>
      </trkpt>
      <trkpt lat="35.184400" lon="-113.466920">
        <ele>1412.019</ele>
        <time>2018-12-29T14:50:36Z</time>
      </trkpt>
      <trkpt lat="35.184360" lon="-113.467170">
        <ele>1412.274</ele>
        <time>2018-12-29T14:50:56Z</time>
      </trkpt>
      <trkpt lat="35.184310" lon="-113.467450">
        <ele>1411.965</ele>
        <time>2018-12-29T14:51:16Z</time>
      </trkpt>
      <trkpt lat="35.184270" lon="-113.467590">
        <ele>1411.660</ele>
        <time>2018-12-29T14:51:36Z</time>
      </trkpt>
      <trkpt lat="35.184220" lon="-113.467820">
        <ele>1412.060</ele>
        <time>2018-12-29T14:51:56Z</time>
      </trkpt>
      <trkpt lat="35.184170" lon="-113.467980">
        <ele>1412.392</ele>
        <time>2018-12-29T14:52:16Z</time>
      </trkpt>
      <trkpt lat="35.184100" lon="-113.468200">
        <ele>1412.596</ele>
        <time>2018-12-29T14:52:36Z</time>
      </trkpt>
      <trkpt lat="35.184020" lon="-113.468420">
        <ele>1411.886</ele>
        <time>2018-12-29T14:52:56Z</time>
      </trkpt>
      <trkpt lat="35.183910" lon="-113.468690">
        <ele>1412.960</ele>
        <time>2018-12-29T14:53:16Z</time>
      </trkpt>
      <trkpt lat="35.183760" lon="-113.469040">
        <ele>1413.426</ele>
        <time>2018-12-29T14:53:36Z</time>
      </trkpt>
      <trkpt lat="35.183640" lon="-113.469290">
        <ele>1413.908</ele>
        <time>2018-12-29T14:53:56Z</time>
      </trkpt>
      <trkpt lat="35.183520" lon="-113.469510">
        <ele>1414.231</ele>
        <time>2018-12-29T14:54:16Z</time>
      </trkpt>
      <trkpt lat="35.183160" lon="-113.470180">
        <ele>1413.839</ele>
        <time>2018-12-29T14:54:36Z</time>
      </trkpt>
      <trkpt lat="35.182930" lon="-113.470630">
        <ele>1417.274</ele>
        <time>2018-12-29T14:54:56Z</time>
      </trkpt>
      <trkpt lat="35.182560" lon="-113.471320">
        <ele>1419.125</ele>
        <time>2018-12-29T14:55:16Z</time>
      </trkpt>
      <trkpt lat="35.182290" lon="-113.471880">
        <ele>1415.250</ele>
        <time>2018-12-29T14:55:36Z</time>
      </trkpt>
      <trkpt lat="35.182110" lon="-113.472250">
        <ele>1417.250</ele>
        <time>2018-12-29T14:55:56Z</time>
      </trkpt>
      <trkpt lat="35.181950" lon="-113.472600">
        <ele>1413.572</ele>
        <time>2018-12-29T14:56:16Z</time>
      </trkpt>
      <trkpt lat="35.181850" lon="-113.472830">
        <ele>1414.766</ele>
        <time>2018-12-29T14:56:36Z</time>
      </trkpt>
      <trkpt lat="35.181750" lon="-113.473060">
        <ele>1416.162</ele>
        <time>2018-12-29T14:56:56Z</time>
      </trkpt>
      <trkpt lat="35.181460" lon="-113.473790">
        <ele>1422.683</ele>
        <time>2018-12-29T14:57:16Z</time>
      </trkpt>
      <trkpt lat="35.181320" lon="-113.474160">
        <ele>1423.111</ele>
        <time>2018-12-29T14:57:36Z</time>
      </trkpt>
      <trkpt lat="35.181200" lon="-113.474510">
        <ele>1424.408</ele>
        <time>2018-12-29T14:57:56Z</time>
      </trkpt>
      <trkpt lat="35.181110" lon="-113.474760">
        <ele>1424.849</ele>
        <time>2018-12-29T14:58:16Z</time>
      </trkpt>
      <trkpt lat="35.181010" lon="-113.475030">
        <ele>1426.197</ele>
        <time>2018-12-29T14:58:36Z</time>
      </trkpt>
      <trkpt lat="35.180860" lon="-113.475530">
        <ele>1427.242</ele>
        <time>2018-12-29T14:58:56Z</time>
      </trkpt>
      <trkpt lat="35.180700" lon="-113.476040">
        <ele>1428.543</ele>
        <time>2018-12-29T14:59:16Z</time>
      </trkpt>
      <trkpt lat="35.180550" lon="-113.476550">
        <ele>1430.348</ele>
        <time>2018-12-29T14:59:36Z</time>
      </trkpt>
      <trkpt lat="35.180450" lon="-113.476940">
        <ele>1431.868</ele>
        <time>2018-12-29T14:59:56Z</time>
      </trkpt>
      <trkpt lat="35.180350" lon="-113.477330">
        <ele>1433.290</ele>
        <time>2018-12-29T15:00:16Z</time>
      </trkpt>
      <trkpt lat="35.180240" lon="-113.477790">
        <ele>1434.754</ele>
        <time>2018-12-29T15:00:36Z</time>
      </trkpt>
      <trkpt lat="35.180180" lon="-113.478070">
        <ele>1432.545</ele>
        <time>2018-12-29T15:00:56Z</time>
      </trkpt>
      <trkpt lat="35.180120" lon="-113.478360">
        <ele>1431.347</ele>
        <time>2018-12-29T15:01:16Z</time>
      </trkpt>
      <trkpt lat="35.180080" lon="-113.478520">
        <ele>1433.111</ele>
        <time>2018-12-29T15:01:36Z</time>
      </trkpt>
      <trkpt lat="35.180040" lon="-113.478740">
        <ele>1434.508</ele>
        <time>2018-12-29T15:01:56Z</time>
      </trkpt>
      <trkpt lat="35.180000" lon="-113.478920">
        <ele>1433.347</ele>
        <time>2018-12-29T15:02:16Z</time>
      </trkpt>
      <trkpt lat="35.179960" lon="-113.479150">
        <ele>1431.215</ele>
        <time>2018-12-29T15:02:36Z</time>
      </trkpt>
      <trkpt lat="35.179930" lon="-113.479350">
        <ele>1429.760</ele>
        <time>2018-12-29T15:02:56Z</time>
      </trkpt>
      <trkpt lat="35.179890" lon="-113.479580">
        <ele>1428.921</ele>
        <time>2018-12-29T15:03:16Z</time>
      </trkpt>
      <trkpt lat="35.179780" lon="-113.480170">
        <ele>1423.616</ele>
        <time>2018-12-29T15:03:36Z</time>
      </trkpt>
      <trkpt lat="35.179720" lon="-113.480510">
        <ele>1422.256</ele>
        <time>2018-12-29T15:03:56Z</time>
      </trkpt>
      <trkpt lat="35.179660" lon="-113.480840">
        <ele>1421.738</ele>
        <time>2018-12-29T15:04:16Z</time>
      </trkpt>
      <trkpt lat="35.179620" lon="-113.481050">
        <ele>1421.692</ele>
        <time>2018-12-29T15:04:36Z</time>
      </trkpt>
      <trkpt lat="35.179590" lon="-113.481240">
        <ele>1421.472</ele>
        <time>2018-12-29T15:04:56Z</time>
      </trkpt>
      <trkpt lat="35.179500" lon="-113.481730">
        <ele>1419.413</ele>
        <time>2018-12-29T15:05:16Z</time>
      </trkpt>
      <trkpt lat="35.179410" lon="-113.482230">
        <ele>1419.314</ele>
        <time>2018-12-29T15:05:36Z</time>
      </trkpt>
      <trkpt lat="35.179320" lon="-113.482770">
        <ele>1422.908</ele>
        <time>2018-12-29T15:05:56Z</time>
      </trkpt>
      <trkpt lat="35.179180" lon="-113.483560">
        <ele>1421.370</ele>
        <time>2018-12-29T15:06:16Z</time>
      </trkpt>
      <trkpt lat="35.179140" lon="-113.483810">
        <ele>1424.058</ele>
        <time>2018-12-29T15:06:36Z</time>
      </trkpt>
      <trkpt lat="35.179100" lon="-113.484100">
        <ele>1422.983</ele>
        <time>2018-12-29T15:06:56Z</time>
      </trkpt>
      <trkpt lat="35.179060" lon="-113.484370">
        <ele>1420.734</ele>
        <time>2018-12-29T15:07:16Z</time>
      </trkpt>
      <trkpt lat="35.179040" lon="-113.484620">
        <ele>1417.679</ele>
        <time>2018-12-29T15:07:36Z</time>
      </trkpt>
      <trkpt lat="35.179010" lon="-113.484880">
        <ele>1415.899</ele>
        <time>2018-12-29T15:07:56Z</time>
      </trkpt>
      <trkpt lat="35.178970" lon="-113.485330">
        <ele>1416.881</ele>
        <time>2018-12-29T15:08:16Z</time>
      </trkpt>
      <trkpt lat="35.178950" lon="-113.485680">
        <ele>1418.425</ele>
        <time>2018-12-29T15:08:36Z</time>
      </trkpt>
      <trkpt lat="35.178940" lon="-113.486090">
        <ele>1415.627</ele>
        <time>2018-12-29T15:08:56Z</time>
      </trkpt>
      <trkpt lat="35.178930" lon="-113.486370">
        <ele>1411.768</ele>
        <time>2018-12-29T15:09:16Z</time>
      </trkpt>
      <trkpt lat="35.178930" lon="-113.486650">
        <ele>1410.714</ele>
        <time>2018-12-29T15:09:36Z</time>
      </trkpt>
      <trkpt lat="35.178940" lon="-113.487030">
        <ele>1411.308</ele>
        <time>2018-12-29T15:09:56Z</time>
      </trkpt>
      <trkpt lat="35.178950" lon="-113.487420">
        <ele>1409.555</ele>
        <time>2018-12-29T15:10:16Z</time>
      </trkpt>
      <trkpt lat="35.178960" lon="-113.487800">
        <ele>1408.373</ele>
        <time>2018-12-29T15:10:36Z</time>
      </trkpt>
      <trkpt lat="35.178970" lon="-113.488090">
        <ele>1403.328</ele>
        <time>2018-12-29T15:10:56Z</time>
      </trkpt>
      <trkpt lat="35.178970" lon="-113.488450">
        <ele>1398.039</ele>
        <time>2018-12-29T15:11:16Z</time>
      </trkpt>
      <trkpt lat="35.179000" lon="-113.489030">
        <ele>1398.884</ele>
        <time>2018-12-29T15:11:36Z</time>
      </trkpt>
      <trkpt lat="35.179010" lon="-113.489420">
        <ele>1397.564</ele>
        <time>2018-12-29T15:11:56Z</time>
      </trkpt>
      <trkpt lat="35.179020" lon="-113.489830">
        <ele>1397.576</ele>
        <time>2018-12-29T15:12:16Z</time>
      </trkpt>
      <trkpt lat="35.179030" lon="-113.490360">
        <ele>1400.450</ele>
        <time>2018-12-29T15:12:36Z</time>
      </trkpt>
      <trkpt lat="35.179050" lon="-113.490780">
        <ele>1401.091</ele>
        <time>2018-12-29T15:12:56Z</time>
      </trkpt>
      <trkpt lat="35.179060" lon="-113.491280">
        <ele>1400.581</ele>
        <time>2018-12-29T15:13:16Z</time>
      </trkpt>
      <trkpt lat="35.179070" lon="-113.491720">
        <ele>1400.119</ele>
        <time>2018-12-29T15:13:36Z</time>
      </trkpt>
      <trkpt lat="35.179080" lon="-113.491980">
        <ele>1399.708</ele>
        <time>2018-12-29T15:13:56Z</time>
      </trkpt>
      <trkpt lat="35.179090" lon="-113.492400">
        <ele>1399.572</ele>
        <time>2018-12-29T15:14:16Z</time>
      </trkpt>
      <trkpt lat="35.179080" lon="-113.492790">
        <ele>1399.070</ele>
        <time>2018-12-29T15:14:36Z</time>
      </trkpt>
      <trkpt lat="35.179070" lon="-113.493030">
        <ele>1397.885</ele>
        <time>2018-12-29T15:14:56Z</time>
      </trkpt>
      <trkpt lat="35.179060" lon="-113.493150">
        <ele>1396.896</ele>
        <time>2018-12-29T15:15:16Z</time>
      </trkpt>
      <trkpt lat="35.179050" lon="-113.493300">
        <ele>1396.241</ele>
        <time>2018-12-29T15:15:36Z</time>
      </trkpt>
      <trkpt lat="35.179030" lon="-113.493430">
        <ele>1395.671</ele>
        <time>2018-12-29T15:15:56Z</time>
      </trkpt>
      <trkpt lat="35.179010" lon="-113.493620">
        <ele>1396.073</ele>
        <time>2018-12-29T15:16:16Z</time>
      </trkpt>
      <trkpt lat="35.178960" lon="-113.493860">
        <ele>1396.817</ele>
        <time>2018-12-29T15:16:36Z</time>
      </trkpt>
      <trkpt lat="35.178930" lon="-113.494040">
        <ele>1396.943</ele>
        <time>2018-12-29T15:16:56Z</time>
      </trkpt>
      <trkpt lat="35.178890" lon="-113.494210">
        <ele>1396.464</ele>
        <time>2018-12-29T15:17:16Z</time>
      </trkpt>
      <trkpt lat="35.178830" lon="-113.494490">
        <ele>1395.510</ele>
        <time>2018-12-29T15:17:36Z</time>
      </trkpt>
      <trkpt lat="35.178780" lon="-113.494640">
        <ele>1394.208</ele>
        <time>2018-12-29T15:17:56Z</time>
      </trkpt>
      <trkpt lat="35.178720" lon="-113.494840">
        <ele>1392.127</ele>
        <time>2018-12-29T15:18:16Z</time>
      </trkpt>
      <trkpt lat="35.178630" lon="-113.495100">
        <ele>1391.255</ele>
        <time>2018-12-29T15:18:36Z</time>
      </trkpt>
      <trkpt lat="35.178540" lon="-113.495350">
        <ele>1390.150</ele>
        <time>2018-12-29T15:18:56Z</time>
      </trkpt>
      <trkpt lat="35.178440" lon="-113.495580">
        <ele>1389.231</ele>
        <time>2018-12-29T15:19:16Z</time>
      </trkpt>
      <trkpt lat="35.178380" lon="-113.495700">
        <ele>1388.976</ele>
        <time>2018-12-29T15:19:36Z</time>
      </trkpt>
      <trkpt lat="35.178280" lon="-113.495920">
        <ele>1386.986</ele>
        <time>2018-12-29T15:19:56Z</time>
      </trkpt>
      <trkpt lat="35.178210" lon="-113.496040">
        <ele>1385.938</ele>
        <time>2018-12-29T15:20:16Z</time>
      </trkpt>
      <trkpt lat="35.178150" lon="-113.496160">
        <ele>1385.462</ele>
        <time>2018-12-29T15:20:36Z</time>
      </trkpt>
      <trkpt lat="35.177900" lon="-113.496590">
        <ele>1382.025</ele>
        <time>2018-12-29T15:20:56Z</time>
      </trkpt>
      <trkpt lat="35.177200" lon="-113.497790">
        <ele>1372.726</ele>
        <time>2018-12-29T15:21:16Z</time>
      </trkpt>
      <trkpt lat="35.177010" lon="-113.498120">
        <ele>1367.108</ele>
        <time>2018-12-29T15:21:36Z</time>
      </trkpt>
      <trkpt lat="35.176760" lon="-113.498550">
        <ele>1365.308</ele>
        <time>2018-12-29T15:21:56Z</time>
      </trkpt>
      <trkpt lat="35.176560" lon="-113.498880">
        <ele>1362.615</ele>
        <time>2018-12-29T15:22:16Z</time>
      </trkpt>
      <trkpt lat="35.176430" lon="-113.499100">
        <ele>1362.163</ele>
        <time>2018-12-29T15:22:36Z</time>
      </trkpt>
      <trkpt lat="35.176230" lon="-113.499450">
        <ele>1365.898</ele>
        <time>2018-12-29T15:22:56Z</time>
      </trkpt>
      <trkpt lat="35.176080" lon="-113.499700">
        <ele>1367.229</ele>
        <time>2018-12-29T15:23:16Z</time>
      </trkpt>
      <trkpt lat="35.175920" lon="-113.499960">
        <ele>1366.544</ele>
        <time>2018-12-29T15:23:36Z</time>
      </trkpt>
      <trkpt lat="35.175860" lon="-113.500060">
        <ele>1366.384</ele>
        <time>2018-12-29T15:23:56Z</time>
      </trkpt>
      <trkpt lat="35.175740" lon="-113.500270">
        <ele>1365.866</ele>
        <time>2018-12-29T15:24:16Z</time>
      </trkpt>
      <trkpt lat="35.175610" lon="-113.500490">
        <ele>1364.480</ele>
        <time>2018-12-29T15:24:36Z</time>
      </trkpt>
      <trkpt lat="35.175480" lon="-113.500720">
        <ele>1361.899</ele>
        <time>2018-12-29T15:24:56Z</time>
      </trkpt>
      <trkpt lat="35.175410" lon="-113.500840">
        <ele>1360.007</ele>
        <time>2018-12-29T15:25:16Z</time>
      </trkpt>
      <trkpt lat="35.175290" lon="-113.501050">
        <ele>1356.427</ele>
        <time>2018-12-29T15:25:36Z</time>
      </trkpt>
      <trkpt lat="35.175100" lon="-113.501410">
        <ele>1351.408</ele>
        <time>2018-12-29T15:25:56Z</time>
      </trkpt>
      <trkpt lat="35.174980" lon="-113.501640">
        <ele>1351.882</ele>
        <time>2018-12-29T15:26:16Z</time>
      </trkpt>
      <trkpt lat="35.174880" lon="-113.501850">
        <ele>1354.580</ele>
        <time>2018-12-29T15:26:36Z</time>
      </trkpt>
      <trkpt lat="35.174800" lon="-113.502010">
        <ele>1357.295</ele>
        <time>2018-12-29T15:26:56Z</time>
      </trkpt>
      <trkpt lat="35.174700" lon="-113.502260">
        <ele>1359.946</ele>
        <time>2018-12-29T15:27:16Z</time>
      </trkpt>
      <trkpt lat="35.174630" lon="-113.502440">
        <ele>1361.231</ele>
        <time>2018-12-29T15:27:36Z</time>
      </trkpt>
      <trkpt lat="35.174590" lon="-113.502550">
        <ele>1362.131</ele>
        <time>2018-12-29T15:27:56Z</time>
      </trkpt>
      <trkpt lat="35.174560" lon="-113.502660">
        <ele>1362.963</ele>
        <time>2018-12-29T15:28:16Z</time>
      </trkpt>
      <trkpt lat="35.174520" lon="-113.502790">
        <ele>1363.787</ele>
        <time>2018-12-29T15:28:36Z</time>
      </trkpt>
      <trkpt lat="35.174490" lon="-113.502890">
        <ele>1364.512</ele>
        <time>2018-12-29T15:28:56Z</time>
      </trkpt>
      <trkpt lat="35.174460" lon="-113.503010">
        <ele>1365.432</ele>
        <time>2018-12-29T15:29:16Z</time>
      </trkpt>
      <trkpt lat="35.174430" lon="-113.503140">
        <ele>1366.405</ele>
        <time>2018-12-29T15:29:36Z</time>
      </trkpt>
      <trkpt lat="35.174400" lon="-113.503270">
        <ele>1366.708</ele>
        <time>2018-12-29T15:29:56Z</time>
      </trkpt>
      <trkpt lat="35.174370" lon="-113.503420">
        <ele>1366.674</ele>
        <time>2018-12-29T15:30:16Z</time>
      </trkpt>
      <trkpt lat="35.174340" lon="-113.503540">
        <ele>1366.272</ele>
        <time>2018-12-29T15:30:36Z</time>
      </trkpt>
      <trkpt lat="35.174320" lon="-113.503670">
        <ele>1365.777</ele>
        <time>2018-12-29T15:30:56Z</time>
      </trkpt>
      <trkpt lat="35.174270" lon="-113.503950">
        <ele>1364.268</ele>
        <time>2018-12-29T15:31:16Z</time>
      </trkpt>
      <trkpt lat="35.174200" lon="-113.504410">
        <ele>1359.633</ele>
        <time>2018-12-29T15:31:36Z</time>
      </trkpt>
      <trkpt lat="35.174160" lon="-113.504640">
        <ele>1356.033</ele>
        <time>2018-12-29T15:31:56Z</time>
      </trkpt>
      <trkpt lat="35.174110" lon="-113.504980">
        <ele>1358.075</ele>
        <time>2018-12-29T15:32:16Z</time>
      </trkpt>
      <trkpt lat="35.174060" lon="-113.505270">
        <ele>1364.699</ele>
        <time>2018-12-29T15:32:36Z</time>
      </trkpt>
      <trkpt lat="35.174000" lon="-113.505510">
        <ele>1366.061</ele>
        <time>2018-12-29T15:32:56Z</time>
      </trkpt>
      <trkpt lat="35.173950" lon="-113.505730">
        <ele>1364.021</ele>
        <time>2018-12-29T15:33:16Z</time>
      </trkpt>
      <trkpt lat="35.173900" lon="-113.505930">
        <ele>1360.913</ele>
        <time>2018-12-29T15:33:36Z</time>
      </trkpt>
      <trkpt lat="35.173790" lon="-113.506300">
        <ele>1352.208</ele>
        <time>2018-12-29T15:33:56Z</time>
      </trkpt>
      <trkpt lat="35.173710" lon="-113.506550">
        <ele>1344.979</ele>
        <time>2018-12-29T15:34:16Z</time>
      </trkpt>
      <trkpt lat="35.173650" lon="-113.506720">
        <ele>1345.087</ele>
        <time>2018-12-29T15:34:36Z</time>
      </trkpt>
      <trkpt lat="35.173600" lon="-113.506830">
        <ele>1344.892</ele>
        <time>2018-12-29T15:34:56Z</time>
      </trkpt>
      <trkpt lat="35.173500" lon="-113.507040">
        <ele>1344.463</ele>
        <time>2018-12-29T15:35:16Z</time>
      </trkpt>
      <trkpt lat="35.173430" lon="-113.507210">
        <ele>1343.188</ele>
        <time>2018-12-29T15:35:36Z</time>
      </trkpt>
      <trkpt lat="35.173370" lon="-113.507330">
        <ele>1340.928</ele>
        <time>2018-12-29T15:35:56Z</time>
      </trkpt>
      <trkpt lat="35.173270" lon="-113.507510">
        <ele>1340.590</ele>
        <time>2018-12-29T15:36:16Z</time>
      </trkpt>
      <trkpt lat="35.173210" lon="-113.507620">
        <ele>1341.394</ele>
        <time>2018-12-29T15:36:36Z</time>
      </trkpt>
      <trkpt lat="35.173140" lon="-113.507730">
        <ele>1341.046</ele>
        <time>2018-12-29T15:36:56Z</time>
      </trkpt>
      <trkpt lat="35.172940" lon="-113.508040">
        <ele>1339.788</ele>
        <time>2018-12-29T15:37:16Z</time>
      </trkpt>
      <trkpt lat="35.172810" lon="-113.508250">
        <ele>1343.316</ele>
        <time>2018-12-29T15:37:36Z</time>
      </trkpt>
      <trkpt lat="35.172710" lon="-113.508380">
        <ele>1347.408</ele>
        <time>2018-12-29T15:37:56Z</time>
      </trkpt>
      <trkpt lat="35.172600" lon="-113.508520">
        <ele>1352.987</ele>
        <time>2018-12-29T15:38:16Z</time>
      </trkpt>
      <trkpt lat="35.172500" lon="-113.508650">
        <ele>1359.225</ele>
        <time>2018-12-29T15:38:36Z</time>
      </trkpt>
      <trkpt lat="35.172390" lon="-113.508800">
        <ele>1364.740</ele>
        <time>2018-12-29T15:38:56Z</time>
      </trkpt>
      <trkpt lat="35.172310" lon="-113.508920">
        <ele>1365.871</ele>
        <time>2018-12-29T15:39:16Z</time>
      </trkpt>
      <trkpt lat="35.172110" lon="-113.509300">
        <ele>1367.466</ele>
        <time>2018-12-29T15:39:36Z</time>
      </trkpt>
      <trkpt lat="35.171980" lon="-113.509560">
        <ele>1369.386</ele>
        <time>2018-12-29T15:39:56Z</time>
      </trkpt>
      <trkpt lat="35.171850" lon="-113.509870">
        <ele>1361.428</ele>
        <time>2018-12-29T15:40:16Z</time>
      </trkpt>
      <trkpt lat="35.171750" lon="-113.510160">
        <ele>1353.492</ele>
        <time>2018-12-29T15:40:36Z</time>
      </trkpt>
      <trkpt lat="35.171640" lon="-113.510510">
        <ele>1345.771</ele>
        <time>2018-12-29T15:40:56Z</time>
      </trkpt>
      <trkpt lat="35.171550" lon="-113.510790">
        <ele>1339.141</ele>
        <time>2018-12-29T15:41:16Z</time>
      </trkpt>
      <trkpt lat="35.171490" lon="-113.511050">
        <ele>1332.015</ele>
        <time>2018-12-29T15:41:36Z</time>
      </trkpt>
      <trkpt lat="35.171380" lon="-113.511490">
        <ele>1323.408</ele>
        <time>2018-12-29T15:41:56Z</time>
      </trkpt>
      <trkpt lat="35.171330" lon="-113.511760">
        <ele>1326.180</ele>
        <time>2018-12-29T15:42:16Z</time>
      </trkpt>
      <trkpt lat="35.171290" lon="-113.512010">
        <ele>1327.228</ele>
        <time>2018-12-29T15:42:36Z</time>
      </trkpt>
      <trkpt lat="35.171260" lon="-113.512190">
        <ele>1325.363</ele>
        <time>2018-12-29T15:42:56Z</time>
      </trkpt>
      <trkpt lat="35.171240" lon="-113.512390">
        <ele>1322.854</ele>
        <time>2018-12-29T15:43:16Z</time>
      </trkpt>
      <trkpt lat="35.171210" lon="-113.512650">
        <ele>1319.329</ele>
        <time>2018-12-29T15:43:36Z</time>
      </trkpt>
      <trkpt lat="35.171190" lon="-113.512920">
        <ele>1317.699</ele>
        <time>2018-12-29T15:43:56Z</time>
      </trkpt>
      <trkpt lat="35.171180" lon="-113.513210">
        <ele>1319.311</ele>
        <time>2018-12-29T15:44:16Z</time>
      </trkpt>
      <trkpt lat="35.171180" lon="-113.513440">
        <ele>1322.625</ele>
        <time>2018-12-29T15:44:36Z</time>
      </trkpt>
      <trkpt lat="35.171180" lon="-113.513660">
        <ele>1327.192</ele>
        <time>2018-12-29T15:44:56Z</time>
      </trkpt>
      <trkpt lat="35.171180" lon="-113.513800">
        <ele>1330.473</ele>
        <time>2018-12-29T15:45:16Z</time>
      </trkpt>
      <trkpt lat="35.171190" lon="-113.513950">
        <ele>1334.820</ele>
        <time>2018-12-29T15:45:36Z</time>
      </trkpt>
      <trkpt lat="35.171190" lon="-113.514090">
        <ele>1337.808</ele>
        <time>2018-12-29T15:45:56Z</time>
      </trkpt>
      <trkpt lat="35.171200" lon="-113.514250">
        <ele>1340.842</ele>
        <time>2018-12-29T15:46:16Z</time>
      </trkpt>
      <trkpt lat="35.171210" lon="-113.514380">
        <ele>1340.810</ele>
        <time>2018-12-29T15:46:36Z</time>
      </trkpt>
      <trkpt lat="35.171230" lon="-113.514520">
        <ele>1339.015</ele>
        <time>2018-12-29T15:46:56Z</time>
      </trkpt>
      <trkpt lat="35.171240" lon="-113.514640">
        <ele>1336.586</ele>
        <time>2018-12-29T15:47:16Z</time>
      </trkpt>
      <trkpt lat="35.171270" lon="-113.514860">
        <ele>1330.331</ele>
        <time>2018-12-29T15:47:36Z</time>
      </trkpt>
      <trkpt lat="35.171320" lon="-113.515110">
        <ele>1322.541</ele>
        <time>2018-12-29T15:47:56Z</time>
      </trkpt>
      <trkpt lat="35.171360" lon="-113.515340">
        <ele>1315.513</ele>
        <time>2018-12-29T15:48:16Z</time>
      </trkpt>
      <trkpt lat="35.171430" lon="-113.515690">
        <ele>1304.747</ele>
        <time>2018-12-29T15:48:36Z</time>
      </trkpt>
      <trkpt lat="35.171500" lon="-113.516060">
        <ele>1295.835</ele>
        <time>2018-12-29T15:48:56Z</time>
      </trkpt>
      <trkpt lat="35.171520" lon="-113.516200">
        <ele>1293.786</ele>
        <time>2018-12-29T15:49:16Z</time>
      </trkpt>
      <trkpt lat="35.171560" lon="-113.516440">
        <ele>1291.314</ele>
        <time>2018-12-29T15:49:36Z</time>
      </trkpt>
      <trkpt lat="35.171590" lon="-113.516690">
        <ele>1288.408</ele>
        <time>2018-12-29T15:49:56Z</time>
      </trkpt>
      <trkpt lat="35.171610" lon="-113.516880">
        <ele>1285.656</ele>
        <time>2018-12-29T15:50:16Z</time>
      </trkpt>
      <trkpt lat="35.171630" lon="-113.517080">
        <ele>1282.084</ele>
        <time>2018-12-29T15:50:36Z</time>
      </trkpt>
      <trkpt lat="35.171660" lon="-113.517440">
        <ele>1279.489</ele>
        <time>2018-12-29T15:50:56Z</time>
      </trkpt>
      <trkpt lat="35.171670" lon="-113.517680">
        <ele>1277.920</ele>
        <time>2018-12-29T15:51:16Z</time>
      </trkpt>
      <trkpt lat="35.171680" lon="-113.517870">
        <ele>1276.815</ele>
        <time>2018-12-29T15:51:36Z</time>
      </trkpt>
      <trkpt lat="35.171680" lon="-113.518080">
        <ele>1275.865</ele>
        <time>2018-12-29T15:51:56Z</time>
      </trkpt>
      <trkpt lat="35.171680" lon="-113.518320">
        <ele>1274.827</ele>
        <time>2018-12-29T15:52:16Z</time>
      </trkpt>
      <trkpt lat="35.171670" lon="-113.518570">
        <ele>1273.621</ele>
        <time>2018-12-29T15:52:36Z</time>
      </trkpt>
      <trkpt lat="35.171650" lon="-113.518930">
        <ele>1271.392</ele>
        <time>2018-12-29T15:52:56Z</time>
      </trkpt>
      <trkpt lat="35.171630" lon="-113.519240">
        <ele>1268.373</ele>
        <time>2018-12-29T15:53:16Z</time>
      </trkpt>
      <trkpt lat="35.171590" lon="-113.519520">
        <ele>1264.720</ele>
        <time>2018-12-29T15:53:36Z</time>
      </trkpt>
      <trkpt lat="35.171570" lon="-113.519720">
        <ele>1262.108</ele>
        <time>2018-12-29T15:53:56Z</time>
      </trkpt>
      <trkpt lat="35.171520" lon="-113.519990">
        <ele>1259.262</ele>
        <time>2018-12-29T15:54:16Z</time>
      </trkpt>
      <trkpt lat="35.171450" lon="-113.520370">
        <ele>1256.370</ele>
        <time>2018-12-29T15:54:36Z</time>
      </trkpt>
      <trkpt lat="35.171340" lon="-113.520890">
        <ele>1261.825</ele>
        <time>2018-12-29T15:54:56Z</time>
      </trkpt>
      <trkpt lat="35.171260" lon="-113.521220">
        <ele>1264.466</ele>
        <time>2018-12-29T15:55:16Z</time>
      </trkpt>
      <trkpt lat="35.171160" lon="-113.521560">
        <ele>1265.481</ele>
        <time>2018-12-29T15:55:36Z</time>
      </trkpt>
      <trkpt lat="35.171050" lon="-113.521910">
        <ele>1264.981</ele>
        <time>2018-12-29T15:55:56Z</time>
      </trkpt>
      <trkpt lat="35.171000" lon="-113.522040">
        <ele>1264.833</ele>
        <time>2018-12-29T15:56:16Z</time>
      </trkpt>
      <trkpt lat="35.170900" lon="-113.522300">
        <ele>1265.397</ele>
        <time>2018-12-29T15:56:36Z</time>
      </trkpt>
      <trkpt lat="35.170860" lon="-113.522410">
        <ele>1264.636</ele>
        <time>2018-12-29T15:56:56Z</time>
      </trkpt>
      <trkpt lat="35.170810" lon="-113.522530">
        <ele>1262.817</ele>
        <time>2018-12-29T15:57:16Z</time>
      </trkpt>
      <trkpt lat="35.170760" lon="-113.522640">
        <ele>1260.818</ele>
        <time>2018-12-29T15:57:36Z</time>
      </trkpt>
      <trkpt lat="35.170710" lon="-113.522750">
        <ele>1259.008</ele>
        <time>2018-12-29T15:57:56Z</time>
      </trkpt>
      <trkpt lat="35.170650" lon="-113.522870">
        <ele>1258.116</ele>
        <time>2018-12-29T15:58:16Z</time>
      </trkpt>
      <trkpt lat="35.170600" lon="-113.522980">
        <ele>1259.974</ele>
        <time>2018-12-29T15:58:36Z</time>
      </trkpt>
      <trkpt lat="35.170480" lon="-113.523230">
        <ele>1267.959</ele>
        <time>2018-12-29T15:58:56Z</time>
      </trkpt>
      <trkpt lat="35.170350" lon="-113.523480">
        <ele>1270.960</ele>
        <time>2018-12-29T15:59:16Z</time>
      </trkpt>
      <trkpt lat="35.170240" lon="-113.523670">
        <ele>1270.515</ele>
        <time>2018-12-29T15:59:36Z</time>
      </trkpt>
      <trkpt lat="35.170150" lon="-113.523830">
        <ele>1269.015</ele>
        <time>2018-12-29T15:59:56Z</time>
      </trkpt>
      <trkpt lat="35.170030" lon="-113.524010">
        <ele>1268.227</ele>
        <time>2018-12-29T16:00:16Z</time>
      </trkpt>
      <trkpt lat="35.169890" lon="-113.524230">
        <ele>1271.621</ele>
        <time>2018-12-29T16:00:36Z</time>
      </trkpt>
      <trkpt lat="35.169690" lon="-113.524550">
        <ele>1274.732</ele>
        <time>2018-12-29T16:00:56Z</time>
      </trkpt>
      <trkpt lat="35.169480" lon="-113.524870">
        <ele>1280.992</ele>
        <time>2018-12-29T16:01:16Z</time>
      </trkpt>
      <trkpt lat="35.169270" lon="-113.525190">
        <ele>1282.311</ele>
        <time>2018-12-29T16:01:36Z</time>
      </trkpt>
      <trkpt lat="35.169140" lon="-113.525380">
        <ele>1280.308</ele>
        <time>2018-12-29T16:01:56Z</time>
      </trkpt>
      <trkpt lat="35.169000" lon="-113.525600">
        <ele>1278.116</ele>
        <time>2018-12-29T16:02:16Z</time>
      </trkpt>
      <trkpt lat="35.168800" lon="-113.525900">
        <ele>1276.094</ele>
        <time>2018-12-29T16:02:36Z</time>
      </trkpt>
      <trkpt lat="35.168700" lon="-113.526040">
        <ele>1275.729</ele>
        <time>2018-12-29T16:02:56Z</time>
      </trkpt>
      <trkpt lat="35.168600" lon="-113.526200">
        <ele>1275.710</ele>
        <time>2018-12-29T16:03:16Z</time>
      </trkpt>
      <trkpt lat="35.168400" lon="-113.526510">
        <ele>1277.445</ele>
        <time>2018-12-29T16:03:36Z</time>
      </trkpt>
      <trkpt lat="35.168220" lon="-113.526790">
        <ele>1281.355</ele>
        <time>2018-12-29T16:03:56Z</time>
      </trkpt>
      <trkpt lat="35.168100" lon="-113.526960">
        <ele>1281.937</ele>
        <time>2018-12-29T16:04:16Z</time>
      </trkpt>
      <trkpt lat="35.167980" lon="-113.527150">
        <ele>1283.031</ele>
        <time>2018-12-29T16:04:36Z</time>
      </trkpt>
      <trkpt lat="35.167910" lon="-113.527270">
        <ele>1284.276</ele>
        <time>2018-12-29T16:04:56Z</time>
      </trkpt>
      <trkpt lat="35.167770" lon="-113.527480">
        <ele>1288.490</ele>
        <time>2018-12-29T16:05:16Z</time>
      </trkpt>
      <trkpt lat="35.167710" lon="-113.527590">
        <ele>1290.619</ele>
        <time>2018-12-29T16:05:36Z</time>
      </trkpt>
      <trkpt lat="35.167640" lon="-113.527700">
        <ele>1292.408</ele>
        <time>2018-12-29T16:05:56Z</time>
      </trkpt>
      <trkpt lat="35.167550" lon="-113.527850">
        <ele>1292.920</ele>
        <time>2018-12-29T16:06:16Z</time>
      </trkpt>
      <trkpt lat="35.167440" lon="-113.528030">
        <ele>1293.168</ele>
        <time>2018-12-29T16:06:36Z</time>
      </trkpt>
      <trkpt lat="35.167260" lon="-113.528350">
        <ele>1292.373</ele>
        <time>2018-12-29T16:06:56Z</time>
      </trkpt>
      <trkpt lat="35.167120" lon="-113.528590">
        <ele>1293.054</ele>
        <time>2018-12-29T16:07:16Z</time>
      </trkpt>
      <trkpt lat="35.166950" lon="-113.528910">
        <ele>1297.349</ele>
        <time>2018-12-29T16:07:36Z</time>
      </trkpt>
      <trkpt lat="35.166820" lon="-113.529150">
        <ele>1302.939</ele>
        <time>2018-12-29T16:07:56Z</time>
      </trkpt>
      <trkpt lat="35.166710" lon="-113.529380">
        <ele>1306.681</ele>
        <time>2018-12-29T16:08:16Z</time>
      </trkpt>
      <trkpt lat="35.166540" lon="-113.529730">
        <ele>1311.175</ele>
        <time>2018-12-29T16:08:36Z</time>
      </trkpt>
      <trkpt lat="35.166410" lon="-113.529980">
        <ele>1314.994</ele>
        <time>2018-12-29T16:08:56Z</time>
      </trkpt>
      <trkpt lat="35.166300" lon="-113.530210">
        <ele>1318.957</ele>
        <time>2018-12-29T16:09:16Z</time>
      </trkpt>
      <trkpt lat="35.166190" lon="-113.530430">
        <ele>1322.222</ele>
        <time>2018-12-29T16:09:36Z</time>
      </trkpt>
      <trkpt lat="35.166080" lon="-113.530660">
        <ele>1326.708</ele>
        <time>2018-12-29T16:09:56Z</time>
      </trkpt>
      <trkpt lat="35.165960" lon="-113.530890">
        <ele>1329.392</ele>
        <time>2018-12-29T16:10:16Z</time>
      </trkpt>
      <trkpt lat="35.165870" lon="-113.531050">
        <ele>1329.610</ele>
        <time>2018-12-29T16:10:36Z</time>
      </trkpt>
      <trkpt lat="35.165770" lon="-113.531240">
        <ele>1329.035</ele>
        <time>2018-12-29T16:10:56Z</time>
      </trkpt>
      <trkpt lat="35.165650" lon="-113.531450">
        <ele>1329.286</ele>
        <time>2018-12-29T16:11:16Z</time>
      </trkpt>
      <trkpt lat="35.165590" lon="-113.531560">
        <ele>1329.441</ele>
        <time>2018-12-29T16:11:36Z</time>
      </trkpt>
      <trkpt lat="35.165520" lon="-113.531670">
        <ele>1330.581</ele>
        <time>2018-12-29T16:11:56Z</time>
      </trkpt>
      <trkpt lat="35.165450" lon="-113.531780">
        <ele>1331.463</ele>
        <time>2018-12-29T16:12:16Z</time>
      </trkpt>
      <trkpt lat="35.165380" lon="-113.531880">
        <ele>1333.027</ele>
        <time>2018-12-29T16:12:36Z</time>
      </trkpt>
      <trkpt lat="35.165240" lon="-113.532100">
        <ele>1337.594</ele>
        <time>2018-12-29T16:12:56Z</time>
      </trkpt>
      <trkpt lat="35.165180" lon="-113.532190">
        <ele>1339.357</ele>
        <time>2018-12-29T16:13:16Z</time>
      </trkpt>
      <trkpt lat="35.165110" lon="-113.532280">
        <ele>1341.622</ele>
        <time>2018-12-29T16:13:36Z</time>
      </trkpt>
      <trkpt lat="35.165030" lon="-113.532390">
        <ele>1344.008</ele>
        <time>2018-12-29T16:13:56Z</time>
      </trkpt>
      <trkpt lat="35.164920" lon="-113.532550">
        <ele>1347.382</ele>
        <time>2018-12-29T16:14:16Z</time>
      </trkpt>
      <trkpt lat="35.164730" lon="-113.532780">
        <ele>1353.130</ele>
        <time>2018-12-29T16:14:36Z</time>
      </trkpt>
      <trkpt lat="35.164550" lon="-113.533010">
        <ele>1357.345</ele>
        <time>2018-12-29T16:14:56Z</time>
      </trkpt>
      <trkpt lat="35.164330" lon="-113.533260">
        <ele>1355.126</ele>
        <time>2018-12-29T16:15:16Z</time>
      </trkpt>
      <trkpt lat="35.164010" lon="-113.533640">
        <ele>1353.181</ele>
        <time>2018-12-29T16:15:36Z</time>
      </trkpt>
      <trkpt lat="35.163780" lon="-113.533900">
        <ele>1350.611</ele>
        <time>2018-12-29T16:15:56Z</time>
      </trkpt>
      <trkpt lat="35.163470" lon="-113.534290">
        <ele>1347.793</ele>
        <time>2018-12-29T16:16:16Z</time>
      </trkpt>
      <trkpt lat="35.163330" lon="-113.534500">
        <ele>1345.787</ele>
        <time>2018-12-29T16:16:36Z</time>
      </trkpt>
      <trkpt lat="35.163190" lon="-113.534710">
        <ele>1342.525</ele>
        <time>2018-12-29T16:16:56Z</time>
      </trkpt>
      <trkpt lat="35.163070" lon="-113.534910">
        <ele>1339.826</ele>
        <time>2018-12-29T16:17:16Z</time>
      </trkpt>
      <trkpt lat="35.162940" lon="-113.535140">
        <ele>1336.908</ele>
        <time>2018-12-29T16:17:36Z</time>
      </trkpt>
      <trkpt lat="35.162770" lon="-113.535460">
        <ele>1333.808</ele>
        <time>2018-12-29T16:17:56Z</time>
      </trkpt>
      <trkpt lat="35.162600" lon="-113.535800">
        <ele>1332.655</ele>
        <time>2018-12-29T16:18:16Z</time>
      </trkpt>
      <trkpt lat="35.162490" lon="-113.536040">
        <ele>1331.713</ele>
        <time>2018-12-29T16:18:36Z</time>
      </trkpt>
      <trkpt lat="35.162390" lon="-113.536290">
        <ele>1330.398</ele>
        <time>2018-12-29T16:18:56Z</time>
      </trkpt>
      <trkpt lat="35.162340" lon="-113.536390">
        <ele>1329.219</ele>
        <time>2018-12-29T16:19:16Z</time>
      </trkpt>
      <trkpt lat="35.162300" lon="-113.536510">
        <ele>1327.324</ele>
        <time>2018-12-29T16:19:36Z</time>
      </trkpt>
      <trkpt lat="35.162260" lon="-113.536630">
        <ele>1323.464</ele>
        <time>2018-12-29T16:19:56Z</time>
      </trkpt>
      <trkpt lat="35.162210" lon="-113.536750">
        <ele>1319.256</ele>
        <time>2018-12-29T16:20:16Z</time>
      </trkpt>
      <trkpt lat="35.162170" lon="-113.536880">
        <ele>1315.910</ele>
        <time>2018-12-29T16:20:36Z</time>
      </trkpt>
      <trkpt lat="35.162130" lon="-113.537000">
        <ele>1313.682</ele>
        <time>2018-12-29T16:20:56Z</time>
      </trkpt>
      <trkpt lat="35.162090" lon="-113.537130">
        <ele>1311.243</ele>
        <time>2018-12-29T16:21:16Z</time>
      </trkpt>
      <trkpt lat="35.162050" lon="-113.537240">
        <ele>1309.217</ele>
        <time>2018-12-29T16:21:36Z</time>
      </trkpt>
      <trkpt lat="35.162010" lon="-113.537380">
        <ele>1306.808</ele>
        <time>2018-12-29T16:21:56Z</time>
      </trkpt>
      <trkpt lat="35.161980" lon="-113.537500">
        <ele>1306.111</ele>
        <time>2018-12-29T16:22:16Z</time>
      </trkpt>
      <trkpt lat="35.161910" lon="-113.537750">
        <ele>1304.179</ele>
        <time>2018-12-29T16:22:36Z</time>
      </trkpt>
      <trkpt lat="35.161880" lon="-113.537880">
        <ele>1303.084</ele>
        <time>2018-12-29T16:22:56Z</time>
      </trkpt>
      <trkpt lat="35.161850" lon="-113.538000">
        <ele>1301.355</ele>
        <time>2018-12-29T16:23:16Z</time>
      </trkpt>
      <trkpt lat="35.161820" lon="-113.538150">
        <ele>1299.140</ele>
        <time>2018-12-29T16:23:36Z</time>
      </trkpt>
      <trkpt lat="35.161780" lon="-113.538340">
        <ele>1297.140</ele>
        <time>2018-12-29T16:23:56Z</time>
      </trkpt>
      <trkpt lat="35.161730" lon="-113.538610">
        <ele>1295.022</ele>
        <time>2018-12-29T16:24:16Z</time>
      </trkpt>
      <trkpt lat="35.161680" lon="-113.538920">
        <ele>1290.656</ele>
        <time>2018-12-29T16:24:36Z</time>
      </trkpt>
      <trkpt lat="35.161660" lon="-113.539110">
        <ele>1286.024</ele>
        <time>2018-12-29T16:24:56Z</time>
      </trkpt>
      <trkpt lat="35.161620" lon="-113.539440">
        <ele>1284.104</ele>
        <time>2018-12-29T16:25:16Z</time>
      </trkpt>
      <trkpt lat="35.161600" lon="-113.539760">
        <ele>1292.114</ele>
        <time>2018-12-29T16:25:36Z</time>
      </trkpt>
      <trkpt lat="35.161580" lon="-113.540020">
        <ele>1294.608</ele>
        <time>2018-12-29T16:25:56Z</time>
      </trkpt>
      <trkpt lat="35.161570" lon="-113.540320">
        <ele>1293.315</ele>
        <time>2018-12-29T16:26:16Z</time>
      </trkpt>
      <trkpt lat="35.161560" lon="-113.540780">
        <ele>1292.353</ele>
        <time>2018-12-29T16:26:36Z</time>
      </trkpt>
      <trkpt lat="35.161560" lon="-113.541050">
        <ele>1295.938</ele>
        <time>2018-12-29T16:26:56Z</time>
      </trkpt>
      <trkpt lat="35.161560" lon="-113.541290">
        <ele>1297.669</ele>
        <time>2018-12-29T16:27:16Z</time>
      </trkpt>
      <trkpt lat="35.161560" lon="-113.541820">
        <ele>1297.314</ele>
        <time>2018-12-29T16:27:36Z</time>
      </trkpt>
      <trkpt lat="35.161560" lon="-113.542370">
        <ele>1289.874</ele>
        <time>2018-12-29T16:27:56Z</time>
      </trkpt>
      <trkpt lat="35.161550" lon="-113.542910">
        <ele>1276.546</ele>
        <time>2018-12-29T16:28:16Z</time>
      </trkpt>
      <trkpt lat="35.161540" lon="-113.543260">
        <ele>1277.770</ele>
        <time>2018-12-29T16:28:36Z</time>
      </trkpt>
      <trkpt lat="35.161530" lon="-113.543590">
        <ele>1279.147</ele>
        <time>2018-12-29T16:28:56Z</time>
      </trkpt>
      <trkpt lat="35.161500" lon="-113.544010">
        <ele>1276.429</ele>
        <time>2018-12-29T16:29:16Z</time>
      </trkpt>
      <trkpt lat="35.161470" lon="-113.544360">
        <ele>1279.121</ele>
        <time>2018-12-29T16:29:36Z</time>
      </trkpt>
      <trkpt lat="35.161440" lon="-113.544750">
        <ele>1280.108</ele>
        <time>2018-12-29T16:29:56Z</time>
      </trkpt>
      <trkpt lat="35.161400" lon="-113.545130">
        <ele>1274.637</ele>
        <time>2018-12-29T16:30:16Z</time>
      </trkpt>
      <trkpt lat="35.161340" lon="-113.545680">
        <ele>1263.615</ele>
        <time>2018-12-29T16:30:36Z</time>
      </trkpt>
      <trkpt lat="35.161320" lon="-113.545820">
        <ele>1265.130</ele>
        <time>2018-12-29T16:30:56Z</time>
      </trkpt>
      <trkpt lat="35.161300" lon="-113.545950">
        <ele>1266.921</ele>
        <time>2018-12-29T16:31:16Z</time>
      </trkpt>
      <trkpt lat="35.161250" lon="-113.546190">
        <ele>1270.566</ele>
        <time>2018-12-29T16:31:36Z</time>
      </trkpt>
      <trkpt lat="35.161180" lon="-113.546580">
        <ele>1272.486</ele>
        <time>2018-12-29T16:31:56Z</time>
      </trkpt>
      <trkpt lat="35.161130" lon="-113.546840">
        <ele>1271.948</ele>
        <time>2018-12-29T16:32:16Z</time>
      </trkpt>
      <trkpt lat="35.161050" lon="-113.547230">
        <ele>1269.312</ele>
        <time>2018-12-29T16:32:36Z</time>
      </trkpt>
      <trkpt lat="35.161000" lon="-113.547480">
        <ele>1267.638</ele>
        <time>2018-12-29T16:32:56Z</time>
      </trkpt>
      <trkpt lat="35.160950" lon="-113.547740">
        <ele>1267.670</ele>
        <time>2018-12-29T16:33:16Z</time>
      </trkpt>
      <trkpt lat="35.160890" lon="-113.548000">
        <ele>1268.217</ele>
        <time>2018-12-29T16:33:36Z</time>
      </trkpt>
      <trkpt lat="35.160840" lon="-113.548240">
        <ele>1267.608</ele>
        <time>2018-12-29T16:33:56Z</time>
      </trkpt>
      <trkpt lat="35.160790" lon="-113.548520">
        <ele>1265.266</ele>
        <time>2018-12-29T16:34:16Z</time>
      </trkpt>
      <trkpt lat="35.160710" lon="-113.548900">
        <ele>1261.584</ele>
        <time>2018-12-29T16:34:36Z</time>
      </trkpt>
      <trkpt lat="35.160660" lon="-113.549160">
        <ele>1259.579</ele>
        <time>2018-12-29T16:34:56Z</time>
      </trkpt>
      <trkpt lat="35.160610" lon="-113.549420">
        <ele>1257.730</ele>
        <time>2018-12-29T16:35:16Z</time>
      </trkpt>
      <trkpt lat="35.160560" lon="-113.549670">
        <ele>1256.465</ele>
        <time>2018-12-29T16:35:36Z</time>
      </trkpt>
      <trkpt lat="35.160500" lon="-113.549950">
        <ele>1256.275</ele>
        <time>2018-12-29T16:35:56Z</time>
      </trkpt>
      <trkpt lat="35.160420" lon="-113.550320">
        <ele>1257.057</ele>
        <time>2018-12-29T16:36:16Z</time>
      </trkpt>
      <trkpt lat="35.160360" lon="-113.550580">
        <ele>1256.541</ele>
        <time>2018-12-29T16:36:36Z</time>
      </trkpt>
      <trkpt lat="35.160290" lon="-113.550970">
        <ele>1254.157</ele>
        <time>2018-12-29T16:36:56Z</time>
      </trkpt>
      <trkpt lat="35.160240" lon="-113.551200">
        <ele>1251.200</ele>
        <time>2018-12-29T16:37:16Z</time>
      </trkpt>
      <trkpt lat="35.160160" lon="-113.551630">
        <ele>1247.620</ele>
        <time>2018-12-29T16:37:36Z</time>
      </trkpt>
      <trkpt lat="35.160080" lon="-113.552020">
        <ele>1245.408</ele>
        <time>2018-12-29T16:37:56Z</time>
      </trkpt>
      <trkpt lat="35.160000" lon="-113.552400">
        <ele>1243.688</ele>
        <time>2018-12-29T16:38:16Z</time>
      </trkpt>
      <trkpt lat="35.159950" lon="-113.552650">
        <ele>1242.746</ele>
        <time>2018-12-29T16:38:36Z</time>
      </trkpt>
      <trkpt lat="35.159870" lon="-113.553030">
        <ele>1243.171</ele>
        <time>2018-12-29T16:38:56Z</time>
      </trkpt>
      <trkpt lat="35.159810" lon="-113.553280">
        <ele>1243.332</ele>
        <time>2018-12-29T16:39:16Z</time>
      </trkpt>
      <trkpt lat="35.159760" lon="-113.553550">
        <ele>1243.477</ele>
        <time>2018-12-29T16:39:36Z</time>
      </trkpt>
      <trkpt lat="35.159650" lon="-113.554040">
        <ele>1245.127</ele>
        <time>2018-12-29T16:39:56Z</time>
      </trkpt>
      <trkpt lat="35.159590" lon="-113.554280">
        <ele>1247.259</ele>
        <time>2018-12-29T16:40:16Z</time>
      </trkpt>
      <trkpt lat="35.159540" lon="-113.554550">
        <ele>1247.543</ele>
        <time>2018-12-29T16:40:36Z</time>
      </trkpt>
      <trkpt lat="35.159510" lon="-113.554660">
        <ele>1246.689</ele>
        <time>2018-12-29T16:40:56Z</time>
      </trkpt>
      <trkpt lat="35.159480" lon="-113.554810">
        <ele>1245.206</ele>
        <time>2018-12-29T16:41:16Z</time>
      </trkpt>
      <trkpt lat="35.159440" lon="-113.555040">
        <ele>1242.426</ele>
        <time>2018-12-29T16:41:36Z</time>
      </trkpt>
      <trkpt lat="35.159410" lon="-113.555200">
        <ele>1239.508</ele>
        <time>2018-12-29T16:41:56Z</time>
      </trkpt>
      <trkpt lat="35.159390" lon="-113.555350">
        <ele>1235.361</ele>
        <time>2018-12-29T16:42:16Z</time>
      </trkpt>
      <trkpt lat="35.159370" lon="-113.555490">
        <ele>1232.759</ele>
        <time>2018-12-29T16:42:36Z</time>
      </trkpt>
      <trkpt lat="35.159330" lon="-113.555660">
        <ele>1230.714</ele>
        <time>2018-12-29T16:42:56Z</time>
      </trkpt>
      <trkpt lat="35.159290" lon="-113.555880">
        <ele>1228.495</ele>
        <time>2018-12-29T16:43:16Z</time>
      </trkpt>
      <trkpt lat="35.159190" lon="-113.556430">
        <ele>1221.730</ele>
        <time>2018-12-29T16:43:36Z</time>
      </trkpt>
      <trkpt lat="35.159150" lon="-113.556670">
        <ele>1220.390</ele>
        <time>2018-12-29T16:43:56Z</time>
      </trkpt>
      <trkpt lat="35.159110" lon="-113.556920">
        <ele>1219.112</ele>
        <time>2018-12-29T16:44:16Z</time>
      </trkpt>
      <trkpt lat="35.159070" lon="-113.557210">
        <ele>1217.246</ele>
        <time>2018-12-29T16:44:36Z</time>
      </trkpt>
      <trkpt lat="35.159040" lon="-113.557470">
        <ele>1216.291</ele>
        <time>2018-12-29T16:44:56Z</time>
      </trkpt>
      <trkpt lat="35.159010" lon="-113.557720">
        <ele>1216.481</ele>
        <time>2018-12-29T16:45:16Z</time>
      </trkpt>
      <trkpt lat="35.158980" lon="-113.557930">
        <ele>1217.619</ele>
        <time>2018-12-29T16:45:36Z</time>
      </trkpt>
      <trkpt lat="35.158950" lon="-113.558150">
        <ele>1218.508</ele>
        <time>2018-12-29T16:45:56Z</time>
      </trkpt>
      <trkpt lat="35.158930" lon="-113.558350">
        <ele>1219.032</ele>
        <time>2018-12-29T16:46:16Z</time>
      </trkpt>
      <trkpt lat="35.158920" lon="-113.558560">
        <ele>1218.770</ele>
        <time>2018-12-29T16:46:36Z</time>
      </trkpt>
      <trkpt lat="35.158900" lon="-113.558740">
        <ele>1217.545</ele>
        <time>2018-12-29T16:46:56Z</time>
      </trkpt>
      <trkpt lat="35.158880" lon="-113.559180">
        <ele>1210.876</ele>
        <time>2018-12-29T16:47:16Z</time>
      </trkpt>
      <trkpt lat="35.158870" lon="-113.559590">
        <ele>1207.711</ele>
        <time>2018-12-29T16:47:36Z</time>
      </trkpt>
      <trkpt lat="35.158850" lon="-113.560030">
        <ele>1205.471</ele>
        <time>2018-12-29T16:47:56Z</time>
      </trkpt>
      <trkpt lat="35.158850" lon="-113.560380">
        <ele>1204.863</ele>
        <time>2018-12-29T16:48:16Z</time>
      </trkpt>
      <trkpt lat="35.158860" lon="-113.560800">
        <ele>1203.647</ele>
        <time>2018-12-29T16:48:36Z</time>
      </trkpt>
      <trkpt lat="35.158870" lon="-113.561210">
        <ele>1201.132</ele>
        <time>2018-12-29T16:48:56Z</time>
      </trkpt>
      <trkpt lat="35.158880" lon="-113.561580">
        <ele>1198.992</ele>
        <time>2018-12-29T16:49:16Z</time>
      </trkpt>
      <trkpt lat="35.158900" lon="-113.561930">
        <ele>1198.411</ele>
        <time>2018-12-29T16:49:36Z</time>
      </trkpt>
      <trkpt lat="35.158940" lon="-113.562380">
        <ele>1197.508</ele>
        <time>2018-12-29T16:49:56Z</time>
      </trkpt>
      <trkpt lat="35.158990" lon="-113.562900">
        <ele>1195.016</ele>
        <time>2018-12-29T16:50:16Z</time>
      </trkpt>
      <trkpt lat="35.159020" lon="-113.563180">
        <ele>1194.274</ele>
        <time>2018-12-29T16:50:36Z</time>
      </trkpt>
      <trkpt lat="35.159060" lon="-113.563500">
        <ele>1194.289</ele>
        <time>2018-12-29T16:50:56Z</time>
      </trkpt>
      <trkpt lat="35.159130" lon="-113.563950">
        <ele>1194.750</ele>
        <time>2018-12-29T16:51:16Z</time>
      </trkpt>
      <trkpt lat="35.159170" lon="-113.564170">
        <ele>1194.355</ele>
        <time>2018-12-29T16:51:36Z</time>
      </trkpt>
      <trkpt lat="35.159190" lon="-113.564330">
        <ele>1193.845</ele>
        <time>2018-12-29T16:51:56Z</time>
      </trkpt>
      <trkpt lat="35.159220" lon="-113.564460">
        <ele>1193.477</ele>
        <time>2018-12-29T16:52:16Z</time>
      </trkpt>
      <trkpt lat="35.159240" lon="-113.564600">
        <ele>1192.891</ele>
        <time>2018-12-29T16:52:36Z</time>
      </trkpt>
      <trkpt lat="35.159270" lon="-113.564750">
        <ele>1192.466</ele>
        <time>2018-12-29T16:52:56Z</time>
      </trkpt>
      <trkpt lat="35.159340" lon="-113.565100">
        <ele>1191.629</ele>
        <time>2018-12-29T16:53:16Z</time>
      </trkpt>
      <trkpt lat="35.159370" lon="-113.565230">
        <ele>1191.321</ele>
        <time>2018-12-29T16:53:36Z</time>
      </trkpt>
      <trkpt lat="35.159400" lon="-113.565350">
        <ele>1191.008</ele>
        <time>2018-12-29T16:53:56Z</time>
      </trkpt>
      <trkpt lat="35.159460" lon="-113.565610">
        <ele>1190.729</ele>
        <time>2018-12-29T16:54:16Z</time>
      </trkpt>
      <trkpt lat="35.159560" lon="-113.566030">
        <ele>1189.777</ele>
        <time>2018-12-29T16:54:36Z</time>
      </trkpt>
      <trkpt lat="35.159730" lon="-113.566640">
        <ele>1187.742</ele>
        <time>2018-12-29T16:54:56Z</time>
      </trkpt>
      <trkpt lat="35.159780" lon="-113.566810">
        <ele>1187.083</ele>
        <time>2018-12-29T16:55:16Z</time>
      </trkpt>
      <trkpt lat="35.159800" lon="-113.566870">
        <ele>1186.878</ele>
        <time>2018-12-29T16:55:36Z</time>
      </trkpt>
      <trkpt lat="35.159850" lon="-113.567050">
        <ele>1185.918</ele>
        <time>2018-12-29T16:55:56Z</time>
      </trkpt>
      <trkpt lat="35.160150" lon="-113.568140">
        <ele>1187.460</ele>
        <time>2018-12-29T16:56:16Z</time>
      </trkpt>
      <trkpt lat="35.160330" lon="-113.568780">
        <ele>1187.024</ele>
        <time>2018-12-29T16:56:36Z</time>
      </trkpt>
      <trkpt lat="35.160470" lon="-113.569290">
        <ele>1187.815</ele>
        <time>2018-12-29T16:56:56Z</time>
      </trkpt>
      <trkpt lat="35.160600" lon="-113.569740">
        <ele>1189.365</ele>
        <time>2018-12-29T16:57:16Z</time>
      </trkpt>
      <trkpt lat="35.160710" lon="-113.570160">
        <ele>1190.611</ele>
        <time>2018-12-29T16:57:36Z</time>
      </trkpt>
      <trkpt lat="35.160870" lon="-113.570790">
        <ele>1191.008</ele>
        <time>2018-12-29T16:57:56Z</time>
      </trkpt>
      <trkpt lat="35.160910" lon="-113.570940">
        <ele>1190.724</ele>
        <time>2018-12-29T16:58:16Z</time>
      </trkpt>
      <trkpt lat="35.160940" lon="-113.571060">
        <ele>1190.322</ele>
        <time>2018-12-29T16:58:36Z</time>
      </trkpt>
      <trkpt lat="35.161000" lon="-113.571320">
        <ele>1189.997</ele>
        <time>2018-12-29T16:58:56Z</time>
      </trkpt>
      <trkpt lat="35.161090" lon="-113.571690">
        <ele>1189.888</ele>
        <time>2018-12-29T16:59:16Z</time>
      </trkpt>
      <trkpt lat="35.161180" lon="-113.572100">
        <ele>1189.653</ele>
        <time>2018-12-29T16:59:36Z</time>
      </trkpt>
      <trkpt lat="35.161230" lon="-113.572310">
        <ele>1189.343</ele>
        <time>2018-12-29T16:59:56Z</time>
      </trkpt>
      <trkpt lat="35.161310" lon="-113.572700">
        <ele>1188.875</ele>
        <time>2018-12-29T17:00:16Z</time>
      </trkpt>
      <trkpt lat="35.161400" lon="-113.573110">
        <ele>1188.039</ele>
        <time>2018-12-29T17:00:36Z</time>
      </trkpt>
      <trkpt lat="35.161510" lon="-113.573690">
        <ele>1186.961</ele>
        <time>2018-12-29T17:00:56Z</time>
      </trkpt>
      <trkpt lat="35.161560" lon="-113.573930">
        <ele>1186.521</ele>
        <time>2018-12-29T17:01:16Z</time>
      </trkpt>
      <trkpt lat="35.161660" lon="-113.574530">
        <ele>1186.213</ele>
        <time>2018-12-29T17:01:36Z</time>
      </trkpt>
      <trkpt lat="35.161790" lon="-113.575340">
        <ele>1187.908</ele>
        <time>2018-12-29T17:01:56Z</time>
      </trkpt>
      <trkpt lat="35.161870" lon="-113.575860">
        <ele>1189.979</ele>
        <time>2018-12-29T17:02:16Z</time>
      </trkpt>
      <trkpt lat="35.161910" lon="-113.576170">
        <ele>1191.137</ele>
        <time>2018-12-29T17:02:36Z</time>
      </trkpt>
      <trkpt lat="35.161960" lon="-113.576520">
        <ele>1192.362</ele>
        <time>2018-12-29T17:02:56Z</time>
      </trkpt>
      <trkpt lat="35.162010" lon="-113.576920">
        <ele>1193.813</ele>
        <time>2018-12-29T17:03:16Z</time>
      </trkpt>
      <trkpt lat="35.162080" lon="-113.577480">
        <ele>1195.178</ele>
        <time>2018-12-29T17:03:36Z</time>
      </trkpt>
      <trkpt lat="35.162130" lon="-113.578010">
        <ele>1195.178</ele>
        <time>2018-12-29T17:03:56Z</time>
      </trkpt>
      <trkpt lat="35.162200" lon="-113.578640">
        <ele>1194.310</ele>
        <time>2018-12-29T17:04:16Z</time>
      </trkpt>
      <trkpt lat="35.162240" lon="-113.579160">
        <ele>1192.664</ele>
        <time>2018-12-29T17:04:36Z</time>
      </trkpt>
      <trkpt lat="35.162280" lon="-113.579700">
        <ele>1191.422</ele>
        <time>2018-12-29T17:04:56Z</time>
      </trkpt>
      <trkpt lat="35.162320" lon="-113.580370">
        <ele>1192.062</ele>
        <time>2018-12-29T17:05:16Z</time>
      </trkpt>
      <trkpt lat="35.162360" lon="-113.581060">
        <ele>1191.708</ele>
        <time>2018-12-29T17:05:36Z</time>
      </trkpt>
      <trkpt lat="35.162380" lon="-113.581840">
        <ele>1187.708</ele>
        <time>2018-12-29T17:05:56Z</time>
      </trkpt>
      <trkpt lat="35.162400" lon="-113.582510">
        <ele>1186.085</ele>
        <time>2018-12-29T17:06:16Z</time>
      </trkpt>
      <trkpt lat="35.162400" lon="-113.583080">
        <ele>1185.253</ele>
        <time>2018-12-29T17:06:36Z</time>
      </trkpt>
      <trkpt lat="35.162400" lon="-113.583590">
        <ele>1185.048</ele>
        <time>2018-12-29T17:06:56Z</time>
      </trkpt>
      <trkpt lat="35.162390" lon="-113.584180">
        <ele>1184.859</ele>
        <time>2018-12-29T17:07:16Z</time>
      </trkpt>
      <trkpt lat="35.162380" lon="-113.584780">
        <ele>1184.524</ele>
        <time>2018-12-29T17:07:36Z</time>
      </trkpt>
      <trkpt lat="35.162370" lon="-113.585180">
        <ele>1184.354</ele>
        <time>2018-12-29T17:07:56Z</time>
      </trkpt>
      <trkpt lat="35.162350" lon="-113.585600">
        <ele>1183.936</ele>
        <time>2018-12-29T17:08:16Z</time>
      </trkpt>
      <trkpt lat="35.162320" lon="-113.586130">
        <ele>1182.030</ele>
        <time>2018-12-29T17:08:36Z</time>
      </trkpt>
      <trkpt lat="35.162280" lon="-113.586800">
        <ele>1176.389</ele>
        <time>2018-12-29T17:08:56Z</time>
      </trkpt>
      <trkpt lat="35.162250" lon="-113.587190">
        <ele>1174.006</ele>
        <time>2018-12-29T17:09:16Z</time>
      </trkpt>
      <trkpt lat="35.162210" lon="-113.587730">
        <ele>1172.826</ele>
        <time>2018-12-29T17:09:36Z</time>
      </trkpt>
      <trkpt lat="35.162080" lon="-113.589330">
        <ele>1171.608</ele>
        <time>2018-12-29T17:09:56Z</time>
      </trkpt>
      <trkpt lat="35.161950" lon="-113.590920">
        <ele>1173.591</ele>
        <time>2018-12-29T17:10:16Z</time>
      </trkpt>
      <trkpt lat="35.161820" lon="-113.592640">
        <ele>1173.799</ele>
        <time>2018-12-29T17:10:36Z</time>
      </trkpt>
      <trkpt lat="35.161710" lon="-113.593960">
        <ele>1175.544</ele>
        <time>2018-12-29T17:10:56Z</time>
      </trkpt>
      <trkpt lat="35.161620" lon="-113.595160">
        <ele>1174.785</ele>
        <time>2018-12-29T17:11:16Z</time>
      </trkpt>
      <trkpt lat="35.161480" lon="-113.596890">
        <ele>1171.160</ele>
        <time>2018-12-29T17:11:36Z</time>
      </trkpt>
      <trkpt lat="35.161380" lon="-113.598080">
        <ele>1169.910</ele>
        <time>2018-12-29T17:11:56Z</time>
      </trkpt>
      <trkpt lat="35.161270" lon="-113.599440">
        <ele>1163.342</ele>
        <time>2018-12-29T17:12:16Z</time>
      </trkpt>
      <trkpt lat="35.161120" lon="-113.601290">
        <ele>1160.326</ele>
        <time>2018-12-29T17:12:36Z</time>
      </trkpt>
      <trkpt lat="35.161050" lon="-113.602260">
        <ele>1159.762</ele>
        <time>2018-12-29T17:12:56Z</time>
      </trkpt>
      <trkpt lat="35.161040" lon="-113.602370">
        <ele>1159.383</ele>
        <time>2018-12-29T17:13:16Z</time>
      </trkpt>
      <trkpt lat="35.161010" lon="-113.602780">
        <ele>1156.911</ele>
        <time>2018-12-29T17:13:36Z</time>
      </trkpt>
      <trkpt lat="35.160970" lon="-113.603190">
        <ele>1156.108</ele>
        <time>2018-12-29T17:13:56Z</time>
      </trkpt>
      <trkpt lat="35.160930" lon="-113.603680">
        <ele>1155.829</ele>
        <time>2018-12-29T17:14:16Z</time>
      </trkpt>
      <trkpt lat="35.160900" lon="-113.604080">
        <ele>1155.677</ele>
        <time>2018-12-29T17:14:36Z</time>
      </trkpt>
      <trkpt lat="35.160870" lon="-113.604470">
        <ele>1155.212</ele>
        <time>2018-12-29T17:14:56Z</time>
      </trkpt>
      <trkpt lat="35.160850" lon="-113.604760">
        <ele>1154.143</ele>
        <time>2018-12-29T17:15:16Z</time>
      </trkpt>
      <trkpt lat="35.160820" lon="-113.605170">
        <ele>1151.798</ele>
        <time>2018-12-29T17:15:36Z</time>
      </trkpt>
      <trkpt lat="35.160790" lon="-113.605560">
        <ele>1150.518</ele>
        <time>2018-12-29T17:15:56Z</time>
      </trkpt>
      <trkpt lat="35.160750" lon="-113.606120">
        <ele>1149.770</ele>
        <time>2018-12-29T17:16:16Z</time>
      </trkpt>
      <trkpt lat="35.160710" lon="-113.606620">
        <ele>1149.754</ele>
        <time>2018-12-29T17:16:36Z</time>
      </trkpt>
      <trkpt lat="35.160690" lon="-113.607030">
        <ele>1149.994</ele>
        <time>2018-12-29T17:16:56Z</time>
      </trkpt>
      <trkpt lat="35.160650" lon="-113.607550">
        <ele>1150.557</ele>
        <time>2018-12-29T17:17:16Z</time>
      </trkpt>
      <trkpt lat="35.160610" lon="-113.608350">
        <ele>1148.522</ele>
        <time>2018-12-29T17:17:36Z</time>
      </trkpt>
      <trkpt lat="35.160570" lon="-113.609110">
        <ele>1146.708</ele>
        <time>2018-12-29T17:17:56Z</time>
      </trkpt>
      <trkpt lat="35.160540" lon="-113.609810">
        <ele>1146.892</ele>
        <time>2018-12-29T17:18:16Z</time>
      </trkpt>
      <trkpt lat="35.160500" lon="-113.610760">
        <ele>1146.720</ele>
        <time>2018-12-29T17:18:36Z</time>
      </trkpt>
      <trkpt lat="35.160480" lon="-113.611400">
        <ele>1145.845</ele>
        <time>2018-12-29T17:18:56Z</time>
      </trkpt>
      <trkpt lat="35.160470" lon="-113.611940">
        <ele>1142.486</ele>
        <time>2018-12-29T17:19:16Z</time>
      </trkpt>
      <trkpt lat="35.160460" lon="-113.612370">
        <ele>1136.851</ele>
        <time>2018-12-29T17:19:36Z</time>
      </trkpt>
      <trkpt lat="35.160440" lon="-113.613050">
        <ele>1134.051</ele>
        <time>2018-12-29T17:19:56Z</time>
      </trkpt>
      <trkpt lat="35.160430" lon="-113.613720">
        <ele>1134.583</ele>
        <time>2018-12-29T17:20:16Z</time>
      </trkpt>
      <trkpt lat="35.160420" lon="-113.614370">
        <ele>1132.577</ele>
        <time>2018-12-29T17:20:36Z</time>
      </trkpt>
      <trkpt lat="35.160420" lon="-113.615190">
        <ele>1127.743</ele>
        <time>2018-12-29T17:20:56Z</time>
      </trkpt>
      <trkpt lat="35.160410" lon="-113.616330">
        <ele>1126.564</ele>
        <time>2018-12-29T17:21:16Z</time>
      </trkpt>
      <trkpt lat="35.160400" lon="-113.618620">
        <ele>1118.510</ele>
        <time>2018-12-29T17:21:36Z</time>
      </trkpt>
      <trkpt lat="35.160380" lon="-113.622700">
        <ele>1101.908</ele>
        <time>2018-12-29T17:21:56Z</time>
      </trkpt>
      <trkpt lat="35.160380" lon="-113.624130">
        <ele>1096.837</ele>
        <time>2018-12-29T17:22:16Z</time>
      </trkpt>
      <trkpt lat="35.160370" lon="-113.625650">
        <ele>1089.345</ele>
        <time>2018-12-29T17:22:36Z</time>
      </trkpt>
      <trkpt lat="35.160370" lon="-113.626460">
        <ele>1087.580</ele>
        <time>2018-12-29T17:22:56Z</time>
      </trkpt>
      <trkpt lat="35.160360" lon="-113.627260">
        <ele>1085.391</ele>
        <time>2018-12-29T17:23:16Z</time>
      </trkpt>
      <trkpt lat="35.160350" lon="-113.628170">
        <ele>1080.216</ele>
        <time>2018-12-29T17:23:36Z</time>
      </trkpt>
      <trkpt lat="35.160350" lon="-113.629380">
        <ele>1075.616</ele>
        <time>2018-12-29T17:23:56Z</time>
      </trkpt>
      <trkpt lat="35.160350" lon="-113.630120">
        <ele>1073.938</ele>
        <time>2018-12-29T17:24:16Z</time>
      </trkpt>
      <trkpt lat="35.160340" lon="-113.631460">
        <ele>1068.092</ele>
        <time>2018-12-29T17:24:36Z</time>
      </trkpt>
      <trkpt lat="35.160330" lon="-113.632770">
        <ele>1064.427</ele>
        <time>2018-12-29T17:24:56Z</time>
      </trkpt>
      <trkpt lat="35.160320" lon="-113.635250">
        <ele>1056.168</ele>
        <time>2018-12-29T17:25:16Z</time>
      </trkpt>
      <trkpt lat="35.160320" lon="-113.635450">
        <ele>1055.414</ele>
        <time>2018-12-29T17:25:36Z</time>
      </trkpt>
      <trkpt lat="35.160320" lon="-113.635710">
        <ele>1055.408</ele>
        <time>2018-12-29T17:25:56Z</time>
      </trkpt>
      <trkpt lat="35.160320" lon="-113.636310">
        <ele>1055.435</ele>
        <time>2018-12-29T17:26:16Z</time>
      </trkpt>
      <trkpt lat="35.160320" lon="-113.636790">
        <ele>1054.733</ele>
        <time>2018-12-29T17:26:36Z</time>
      </trkpt>
      <trkpt lat="35.160320" lon="-113.637270">
        <ele>1055.368</ele>
        <time>2018-12-29T17:26:56Z</time>
      </trkpt>
      <trkpt lat="35.160310" lon="-113.639890">
        <ele>1055.939</ele>
        <time>2018-12-29T17:27:16Z</time>
      </trkpt>
      <trkpt lat="35.160300" lon="-113.640500">
        <ele>1058.514</ele>
        <time>2018-12-29T17:27:36Z</time>
      </trkpt>
      <trkpt lat="35.160300" lon="-113.641510">
        <ele>1056.264</ele>
        <time>2018-12-29T17:27:56Z</time>
      </trkpt>
      <trkpt lat="35.160290" lon="-113.642260">
        <ele>1059.876</ele>
        <time>2018-12-29T17:28:16Z</time>
      </trkpt>
      <trkpt lat="35.160290" lon="-113.643290">
        <ele>1060.120</ele>
        <time>2018-12-29T17:28:36Z</time>
      </trkpt>
      <trkpt lat="35.160280" lon="-113.644400">
        <ele>1060.037</ele>
        <time>2018-12-29T17:28:56Z</time>
      </trkpt>
      <trkpt lat="35.160290" lon="-113.645310">
        <ele>1063.649</ele>
        <time>2018-12-29T17:29:16Z</time>
      </trkpt>
      <trkpt lat="35.160300" lon="-113.645780">
        <ele>1066.313</ele>
        <time>2018-12-29T17:29:36Z</time>
      </trkpt>
      <trkpt lat="35.160310" lon="-113.646290">
        <ele>1067.108</ele>
        <time>2018-12-29T17:29:56Z</time>
      </trkpt>
      <trkpt lat="35.160330" lon="-113.646720">
        <ele>1067.296</ele>
        <time>2018-12-29T17:30:16Z</time>
      </trkpt>
      <trkpt lat="35.160350" lon="-113.647190">
        <ele>1070.514</ele>
        <time>2018-12-29T17:30:36Z</time>
      </trkpt>
      <trkpt lat="35.160380" lon="-113.647590">
        <ele>1071.169</ele>
        <time>2018-12-29T17:30:56Z</time>
      </trkpt>
      <trkpt lat="35.160410" lon="-113.647980">
        <ele>1071.960</ele>
        <time>2018-12-29T17:31:16Z</time>
      </trkpt>
      <trkpt lat="35.160450" lon="-113.648350">
        <ele>1073.515</ele>
        <time>2018-12-29T17:31:36Z</time>
      </trkpt>
      <trkpt lat="35.160480" lon="-113.648740">
        <ele>1073.725</ele>
        <time>2018-12-29T17:31:56Z</time>
      </trkpt>
      <trkpt lat="35.160530" lon="-113.649150">
        <ele>1073.637</ele>
        <time>2018-12-29T17:32:16Z</time>
      </trkpt>
      <trkpt lat="35.160600" lon="-113.649680">
        <ele>1074.071</ele>
        <time>2018-12-29T17:32:36Z</time>
      </trkpt>
      <trkpt lat="35.160660" lon="-113.650070">
        <ele>1074.918</ele>
        <time>2018-12-29T17:32:56Z</time>
      </trkpt>
      <trkpt lat="35.160730" lon="-113.650560">
        <ele>1076.598</ele>
        <time>2018-12-29T17:33:16Z</time>
      </trkpt>
      <trkpt lat="35.160820" lon="-113.651070">
        <ele>1079.717</ele>
        <time>2018-12-29T17:33:36Z</time>
      </trkpt>
      <trkpt lat="35.160930" lon="-113.651630">
        <ele>1079.908</ele>
        <time>2018-12-29T17:33:56Z</time>
      </trkpt>
      <trkpt lat="35.161000" lon="-113.651990">
        <ele>1079.764</ele>
        <time>2018-12-29T17:34:16Z</time>
      </trkpt>
      <trkpt lat="35.161090" lon="-113.652410">
        <ele>1082.692</ele>
        <time>2018-12-29T17:34:36Z</time>
      </trkpt>
      <trkpt lat="35.161180" lon="-113.652770">
        <ele>1085.437</ele>
        <time>2018-12-29T17:34:56Z</time>
      </trkpt>
      <trkpt lat="35.161320" lon="-113.653420">
        <ele>1085.948</ele>
        <time>2018-12-29T17:35:16Z</time>
      </trkpt>
      <trkpt lat="35.161480" lon="-113.654120">
        <ele>1085.293</ele>
        <time>2018-12-29T17:35:36Z</time>
      </trkpt>
      <trkpt lat="35.161630" lon="-113.654760">
        <ele>1085.013</ele>
        <time>2018-12-29T17:35:56Z</time>
      </trkpt>
      <trkpt lat="35.161720" lon="-113.655190">
        <ele>1084.925</ele>
        <time>2018-12-29T17:36:16Z</time>
      </trkpt>
      <trkpt lat="35.161790" lon="-113.655570">
        <ele>1084.529</ele>
        <time>2018-12-29T17:36:36Z</time>
      </trkpt>
      <trkpt lat="35.161860" lon="-113.655950">
        <ele>1085.352</ele>
        <time>2018-12-29T17:36:56Z</time>
      </trkpt>
      <trkpt lat="35.161940" lon="-113.656350">
        <ele>1086.153</ele>
        <time>2018-12-29T17:37:16Z</time>
      </trkpt>
      <trkpt lat="35.162010" lon="-113.656820">
        <ele>1086.608</ele>
        <time>2018-12-29T17:37:36Z</time>
      </trkpt>
      <trkpt lat="35.162070" lon="-113.657220">
        <ele>1088.108</ele>
        <time>2018-12-29T17:37:56Z</time>
      </trkpt>
      <trkpt lat="35.162140" lon="-113.657710">
        <ele>1087.728</ele>
        <time>2018-12-29T17:38:16Z</time>
      </trkpt>
      <trkpt lat="35.162200" lon="-113.658160">
        <ele>1086.446</ele>
        <time>2018-12-29T17:38:36Z</time>
      </trkpt>
      <trkpt lat="35.162280" lon="-113.658820">
        <ele>1085.431</ele>
        <time>2018-12-29T17:38:56Z</time>
      </trkpt>
      <trkpt lat="35.162330" lon="-113.659340">
        <ele>1084.652</ele>
        <time>2018-12-29T17:39:16Z</time>
      </trkpt>
      <trkpt lat="35.162380" lon="-113.659980">
        <ele>1084.837</ele>
        <time>2018-12-29T17:39:36Z</time>
      </trkpt>
      <trkpt lat="35.162420" lon="-113.660610">
        <ele>1083.797</ele>
        <time>2018-12-29T17:39:56Z</time>
      </trkpt>
      <trkpt lat="35.162460" lon="-113.661400">
        <ele>1081.049</ele>
        <time>2018-12-29T17:40:16Z</time>
      </trkpt>
      <trkpt lat="35.162480" lon="-113.661900">
        <ele>1079.983</ele>
        <time>2018-12-29T17:40:36Z</time>
      </trkpt>
      <trkpt lat="35.162490" lon="-113.662300">
        <ele>1079.837</ele>
        <time>2018-12-29T17:40:56Z</time>
      </trkpt>
      <trkpt lat="35.162490" lon="-113.662730">
        <ele>1079.849</ele>
        <time>2018-12-29T17:41:16Z</time>
      </trkpt>
      <trkpt lat="35.162490" lon="-113.663250">
        <ele>1078.013</ele>
        <time>2018-12-29T17:41:36Z</time>
      </trkpt>
      <trkpt lat="35.162490" lon="-113.663580">
        <ele>1077.508</ele>
        <time>2018-12-29T17:41:56Z</time>
      </trkpt>
      <trkpt lat="35.162480" lon="-113.663860">
        <ele>1078.416</ele>
        <time>2018-12-29T17:42:16Z</time>
      </trkpt>
      <trkpt lat="35.162420" lon="-113.665070">
        <ele>1079.844</ele>
        <time>2018-12-29T17:42:36Z</time>
      </trkpt>
      <trkpt lat="35.162360" lon="-113.666090">
        <ele>1078.129</ele>
        <time>2018-12-29T17:42:56Z</time>
      </trkpt>
      <trkpt lat="35.162210" lon="-113.667520">
        <ele>1079.030</ele>
        <time>2018-12-29T17:43:16Z</time>
      </trkpt>
      <trkpt lat="35.162010" lon="-113.669470">
        <ele>1079.865</ele>
        <time>2018-12-29T17:43:36Z</time>
      </trkpt>
      <trkpt lat="35.161970" lon="-113.669870">
        <ele>1079.895</ele>
        <time>2018-12-29T17:43:56Z</time>
      </trkpt>
      <trkpt lat="35.161930" lon="-113.670280">
        <ele>1085.127</ele>
        <time>2018-12-29T17:44:16Z</time>
      </trkpt>
      <trkpt lat="35.161770" lon="-113.671740">
        <ele>1091.651</ele>
        <time>2018-12-29T17:44:36Z</time>
      </trkpt>
      <trkpt lat="35.161640" lon="-113.673000">
        <ele>1094.038</ele>
        <time>2018-12-29T17:44:56Z</time>
      </trkpt>
      <trkpt lat="35.161490" lon="-113.674310">
        <ele>1095.970</ele>
        <time>2018-12-29T17:45:16Z</time>
      </trkpt>
      <trkpt lat="35.161400" lon="-113.675180">
        <ele>1098.717</ele>
        <time>2018-12-29T17:45:36Z</time>
      </trkpt>
      <trkpt lat="35.161320" lon="-113.675980">
        <ele>1100.208</ele>
        <time>2018-12-29T17:45:56Z</time>
      </trkpt>
      <trkpt lat="35.161210" lon="-113.676960">
        <ele>1099.346</ele>
        <time>2018-12-29T17:46:16Z</time>
      </trkpt>
      <trkpt lat="35.161100" lon="-113.678050">
        <ele>1100.214</ele>
        <time>2018-12-29T17:46:36Z</time>
      </trkpt>
      <trkpt lat="35.160900" lon="-113.679920">
        <ele>1104.139</ele>
        <time>2018-12-29T17:46:56Z</time>
      </trkpt>
      <trkpt lat="35.160730" lon="-113.681480">
        <ele>1104.540</ele>
        <time>2018-12-29T17:47:16Z</time>
      </trkpt>
      <trkpt lat="35.160490" lon="-113.683770">
        <ele>1111.375</ele>
        <time>2018-12-29T17:47:36Z</time>
      </trkpt>
      <trkpt lat="35.160270" lon="-113.685880">
        <ele>1114.855</ele>
        <time>2018-12-29T17:47:56Z</time>
      </trkpt>
      <trkpt lat="35.159870" lon="-113.689690">
        <ele>1112.717</ele>
        <time>2018-12-29T17:48:16Z</time>
      </trkpt>
      <trkpt lat="35.159750" lon="-113.690830">
        <ele>1114.171</ele>
        <time>2018-12-29T17:48:36Z</time>
      </trkpt>
      <trkpt lat="35.159620" lon="-113.691970">
        <ele>1109.176</ele>
        <time>2018-12-29T17:48:56Z</time>
      </trkpt>
      <trkpt lat="35.159500" lon="-113.693220">
        <ele>1111.790</ele>
        <time>2018-12-29T17:49:16Z</time>
      </trkpt>
      <trkpt lat="35.159450" lon="-113.693710">
        <ele>1112.919</ele>
        <time>2018-12-29T17:49:36Z</time>
      </trkpt>
      <trkpt lat="35.159440" lon="-113.693980">
        <ele>1113.608</ele>
        <time>2018-12-29T17:49:56Z</time>
      </trkpt>
      <trkpt lat="35.159410" lon="-113.694370">
        <ele>1114.450</ele>
        <time>2018-12-29T17:50:16Z</time>
      </trkpt>
      <trkpt lat="35.159390" lon="-113.694810">
        <ele>1115.388</ele>
        <time>2018-12-29T17:50:36Z</time>
      </trkpt>
      <trkpt lat="35.159380" lon="-113.695460">
        <ele>1116.483</ele>
        <time>2018-12-29T17:50:56Z</time>
      </trkpt>
      <trkpt lat="35.159370" lon="-113.695750">
        <ele>1117.384</ele>
        <time>2018-12-29T17:51:16Z</time>
      </trkpt>
      <trkpt lat="35.159380" lon="-113.696360">
        <ele>1121.259</ele>
        <time>2018-12-29T17:51:36Z</time>
      </trkpt>
      <trkpt lat="35.159410" lon="-113.697020">
        <ele>1122.359</ele>
        <time>2018-12-29T17:51:56Z</time>
      </trkpt>
      <trkpt lat="35.159410" lon="-113.697210">
        <ele>1122.261</ele>
        <time>2018-12-29T17:52:16Z</time>
      </trkpt>
      <trkpt lat="35.159440" lon="-113.697780">
        <ele>1123.175</ele>
        <time>2018-12-29T17:52:36Z</time>
      </trkpt>
      <trkpt lat="35.159500" lon="-113.698380">
        <ele>1125.749</ele>
        <time>2018-12-29T17:52:56Z</time>
      </trkpt>
      <trkpt lat="35.159550" lon="-113.698860">
        <ele>1126.802</ele>
        <time>2018-12-29T17:53:16Z</time>
      </trkpt>
      <trkpt lat="35.159610" lon="-113.699410">
        <ele>1127.522</ele>
        <time>2018-12-29T17:53:36Z</time>
      </trkpt>
      <trkpt lat="35.159760" lon="-113.700430">
        <ele>1129.808</ele>
        <time>2018-12-29T17:53:56Z</time>
      </trkpt>
      <trkpt lat="35.159960" lon="-113.701670">
        <ele>1133.547</ele>
        <time>2018-12-29T17:54:16Z</time>
      </trkpt>
      <trkpt lat="35.160460" lon="-113.704890">
        <ele>1141.895</ele>
        <time>2018-12-29T17:54:36Z</time>
      </trkpt>
      <trkpt lat="35.160860" lon="-113.707490">
        <ele>1149.180</ele>
        <time>2018-12-29T17:54:56Z</time>
      </trkpt>
      <trkpt lat="35.160920" lon="-113.707760">
        <ele>1150.941</ele>
        <time>2018-12-29T17:55:16Z</time>
      </trkpt>
      <trkpt lat="35.160960" lon="-113.708000">
        <ele>1152.916</ele>
        <time>2018-12-29T17:55:36Z</time>
      </trkpt>
      <trkpt lat="35.160990" lon="-113.708200">
        <ele>1153.226</ele>
        <time>2018-12-29T17:55:56Z</time>
      </trkpt>
      <trkpt lat="35.161100" lon="-113.708900">
        <ele>1154.948</ele>
        <time>2018-12-29T17:56:16Z</time>
      </trkpt>
      <trkpt lat="35.161110" lon="-113.708990">
        <ele>1155.342</ele>
        <time>2018-12-29T17:56:36Z</time>
      </trkpt>
      <trkpt lat="35.161350" lon="-113.710500">
        <ele>1159.577</ele>
        <time>2018-12-29T17:56:56Z</time>
      </trkpt>
      <trkpt lat="35.161930" lon="-113.714230">
        <ele>1170.461</ele>
        <time>2018-12-29T17:57:16Z</time>
      </trkpt>
      <trkpt lat="35.162100" lon="-113.715290">
        <ele>1172.227</ele>
        <time>2018-12-29T17:57:36Z</time>
      </trkpt>
      <trkpt lat="35.162400" lon="-113.717200">
        <ele>1178.308</ele>
        <time>2018-12-29T17:57:56Z</time>
      </trkpt>
      <trkpt lat="35.162580" lon="-113.718330">
        <ele>1183.140</ele>
        <time>2018-12-29T17:58:16Z</time>
      </trkpt>
      <trkpt lat="35.162790" lon="-113.719730">
        <ele>1181.558</ele>
        <time>2018-12-29T17:58:36Z</time>
      </trkpt>
      <trkpt lat="35.163220" lon="-113.722490">
        <ele>1188.853</ele>
        <time>2018-12-29T17:58:56Z</time>
      </trkpt>
      <trkpt lat="35.164210" lon="-113.728800">
        <ele>1203.564</ele>
        <time>2018-12-29T17:59:16Z</time>
      </trkpt>
      <trkpt lat="35.164330" lon="-113.729590">
        <ele>1202.599</ele>
        <time>2018-12-29T17:59:36Z</time>
      </trkpt>
      <trkpt lat="35.165250" lon="-113.735440">
        <ele>1219.159</ele>
        <time>2018-12-29T17:59:56Z</time>
      </trkpt>
      <trkpt lat="35.165840" lon="-113.739240">
        <ele>1229.111</ele>
        <time>2018-12-29T18:00:16Z</time>
      </trkpt>
      <trkpt lat="35.166190" lon="-113.741500">
        <ele>1233.895</ele>
        <time>2018-12-29T18:00:36Z</time>
      </trkpt>
      <trkpt lat="35.166520" lon="-113.743650">
        <ele>1237.983</ele>
        <time>2018-12-29T18:00:56Z</time>
      </trkpt>
      <trkpt lat="35.166950" lon="-113.746430">
        <ele>1243.325</ele>
        <time>2018-12-29T18:01:16Z</time>
      </trkpt>
      <trkpt lat="35.168310" lon="-113.755170">
        <ele>1252.717</ele>
        <time>2018-12-29T18:01:36Z</time>
      </trkpt>
      <trkpt lat="35.168820" lon="-113.758430">
        <ele>1259.608</ele>
        <time>2018-12-29T18:01:56Z</time>
      </trkpt>
      <trkpt lat="35.169410" lon="-113.762200">
        <ele>1268.871</ele>
        <time>2018-12-29T18:02:16Z</time>
      </trkpt>
      <trkpt lat="35.169590" lon="-113.763370">
        <ele>1269.399</ele>
        <time>2018-12-29T18:02:36Z</time>
      </trkpt>
      <trkpt lat="35.169700" lon="-113.764040">
        <ele>1269.764</ele>
        <time>2018-12-29T18:02:56Z</time>
      </trkpt>
      <trkpt lat="35.171280" lon="-113.774180">
        <ele>1283.795</ele>
        <time>2018-12-29T18:03:16Z</time>
      </trkpt>
      <trkpt lat="35.171560" lon="-113.775710">
        <ele>1284.670</ele>
        <time>2018-12-29T18:03:36Z</time>
      </trkpt>
      <trkpt lat="35.171870" lon="-113.777070">
        <ele>1281.840</ele>
        <time>2018-12-29T18:03:56Z</time>
      </trkpt>
      <trkpt lat="35.172090" lon="-113.777910">
        <ele>1282.292</ele>
        <time>2018-12-29T18:04:16Z</time>
      </trkpt>
      <trkpt lat="35.172180" lon="-113.778290">
        <ele>1282.426</ele>
        <time>2018-12-29T18:04:36Z</time>
      </trkpt>
      <trkpt lat="35.172260" lon="-113.778600">
        <ele>1282.829</ele>
        <time>2018-12-29T18:04:56Z</time>
      </trkpt>
      <trkpt lat="35.172430" lon="-113.779200">
        <ele>1282.600</ele>
        <time>2018-12-29T18:05:16Z</time>
      </trkpt>
      <trkpt lat="35.172610" lon="-113.779790">
        <ele>1282.020</ele>
        <time>2018-12-29T18:05:36Z</time>
      </trkpt>
      <trkpt lat="35.172760" lon="-113.780300">
        <ele>1281.708</ele>
        <time>2018-12-29T18:05:56Z</time>
      </trkpt>
      <trkpt lat="35.172940" lon="-113.780850">
        <ele>1282.055</ele>
        <time>2018-12-29T18:06:16Z</time>
      </trkpt>
      <trkpt lat="35.173200" lon="-113.781580">
        <ele>1282.493</ele>
        <time>2018-12-29T18:06:36Z</time>
      </trkpt>
      <trkpt lat="35.173350" lon="-113.781990">
        <ele>1282.448</ele>
        <time>2018-12-29T18:06:56Z</time>
      </trkpt>
      <trkpt lat="35.173540" lon="-113.782530">
        <ele>1282.739</ele>
        <time>2018-12-29T18:07:16Z</time>
      </trkpt>
      <trkpt lat="35.173730" lon="-113.783020">
        <ele>1282.624</ele>
        <time>2018-12-29T18:07:36Z</time>
      </trkpt>
      <trkpt lat="35.173880" lon="-113.783390">
        <ele>1282.124</ele>
        <time>2018-12-29T18:07:56Z</time>
      </trkpt>
      <trkpt lat="35.174050" lon="-113.783780">
        <ele>1281.686</ele>
        <time>2018-12-29T18:08:16Z</time>
      </trkpt>
      <trkpt lat="35.174230" lon="-113.784210">
        <ele>1282.240</ele>
        <time>2018-12-29T18:08:36Z</time>
      </trkpt>
      <trkpt lat="35.174450" lon="-113.784760">
        <ele>1283.398</ele>
        <time>2018-12-29T18:08:56Z</time>
      </trkpt>
      <trkpt lat="35.175120" lon="-113.786230">
        <ele>1286.815</ele>
        <time>2018-12-29T18:09:16Z</time>
      </trkpt>
      <trkpt lat="35.175450" lon="-113.787000">
        <ele>1288.026</ele>
        <time>2018-12-29T18:09:36Z</time>
      </trkpt>
      <trkpt lat="35.175890" lon="-113.787960">
        <ele>1288.508</ele>
        <time>2018-12-29T18:09:56Z</time>
      </trkpt>
      <trkpt lat="35.176350" lon="-113.788990">
        <ele>1291.812</ele>
        <time>2018-12-29T18:10:16Z</time>
      </trkpt>
      <trkpt lat="35.177000" lon="-113.790440">
        <ele>1293.010</ele>
        <time>2018-12-29T18:10:36Z</time>
      </trkpt>
      <trkpt lat="35.177070" lon="-113.790590">
        <ele>1293.135</ele>
        <time>2018-12-29T18:10:56Z</time>
      </trkpt>
      <trkpt lat="35.177140" lon="-113.790740">
        <ele>1293.186</ele>
        <time>2018-12-29T18:11:16Z</time>
      </trkpt>
      <trkpt lat="35.177890" lon="-113.792420">
        <ele>1293.551</ele>
        <time>2018-12-29T18:11:36Z</time>
      </trkpt>
      <trkpt lat="35.178270" lon="-113.793270">
        <ele>1294.491</ele>
        <time>2018-12-29T18:11:56Z</time>
      </trkpt>
      <trkpt lat="35.178650" lon="-113.794110">
        <ele>1294.683</ele>
        <time>2018-12-29T18:12:16Z</time>
      </trkpt>
      <trkpt lat="35.178860" lon="-113.794580">
        <ele>1292.947</ele>
        <time>2018-12-29T18:12:36Z</time>
      </trkpt>
      <trkpt lat="35.178950" lon="-113.794710">
        <ele>1292.637</ele>
        <time>2018-12-29T18:12:56Z</time>
      </trkpt>
      <trkpt lat="35.179390" lon="-113.795680">
        <ele>1291.349</ele>
        <time>2018-12-29T18:13:16Z</time>
      </trkpt>
      <trkpt lat="35.179660" lon="-113.796290">
        <ele>1290.613</ele>
        <time>2018-12-29T18:13:36Z</time>
      </trkpt>
      <trkpt lat="35.181080" lon="-113.799490">
        <ele>1287.908</ele>
        <time>2018-12-29T18:13:56Z</time>
      </trkpt>
      <trkpt lat="35.182800" lon="-113.803340">
        <ele>1287.756</ele>
        <time>2018-12-29T18:14:16Z</time>
      </trkpt>
      <trkpt lat="35.185240" lon="-113.808790">
        <ele>1283.444</ele>
        <time>2018-12-29T18:14:36Z</time>
      </trkpt>
      <trkpt lat="35.186490" lon="-113.811560">
        <ele>1284.289</ele>
        <time>2018-12-29T18:14:56Z</time>
      </trkpt>
      <trkpt lat="35.187150" lon="-113.813060">
        <ele>1281.780</ele>
        <time>2018-12-29T18:15:16Z</time>
      </trkpt>
      <trkpt lat="35.187810" lon="-113.814530">
        <ele>1279.475</ele>
        <time>2018-12-29T18:15:36Z</time>
      </trkpt>
      <trkpt lat="35.188980" lon="-113.817160">
        <ele>1280.075</ele>
        <time>2018-12-29T18:15:56Z</time>
      </trkpt>
      <trkpt lat="35.189610" lon="-113.818520">
        <ele>1270.897</ele>
        <time>2018-12-29T18:16:16Z</time>
      </trkpt>
      <trkpt lat="35.189910" lon="-113.819170">
        <ele>1271.581</ele>
        <time>2018-12-29T18:16:36Z</time>
      </trkpt>
      <trkpt lat="35.190220" lon="-113.819870">
        <ele>1272.927</ele>
        <time>2018-12-29T18:16:56Z</time>
      </trkpt>
      <trkpt lat="35.190470" lon="-113.820450">
        <ele>1274.368</ele>
        <time>2018-12-29T18:17:16Z</time>
      </trkpt>
      <trkpt lat="35.190740" lon="-113.821070">
        <ele>1275.414</ele>
        <time>2018-12-29T18:17:36Z</time>
      </trkpt>
      <trkpt lat="35.191000" lon="-113.821680">
        <ele>1276.208</ele>
        <time>2018-12-29T18:17:56Z</time>
      </trkpt>
      <trkpt lat="35.191190" lon="-113.822160">
        <ele>1277.035</ele>
        <time>2018-12-29T18:18:16Z</time>
      </trkpt>
      <trkpt lat="35.191340" lon="-113.822550">
        <ele>1277.773</ele>
        <time>2018-12-29T18:18:36Z</time>
      </trkpt>
      <trkpt lat="35.191570" lon="-113.823160">
        <ele>1278.998</ele>
        <time>2018-12-29T18:18:56Z</time>
      </trkpt>
      <trkpt lat="35.191710" lon="-113.823550">
        <ele>1279.949</ele>
        <time>2018-12-29T18:19:16Z</time>
      </trkpt>
      <trkpt lat="35.191880" lon="-113.824040">
        <ele>1279.574</ele>
        <time>2018-12-29T18:19:36Z</time>
      </trkpt>
      <trkpt lat="35.192020" lon="-113.824420">
        <ele>1277.244</ele>
        <time>2018-12-29T18:19:56Z</time>
      </trkpt>
      <trkpt lat="35.192150" lon="-113.824810">
        <ele>1274.456</ele>
        <time>2018-12-29T18:20:16Z</time>
      </trkpt>
      <trkpt lat="35.192270" lon="-113.825180">
        <ele>1272.390</ele>
        <time>2018-12-29T18:20:36Z</time>
      </trkpt>
      <trkpt lat="35.192580" lon="-113.826180">
        <ele>1269.792</ele>
        <time>2018-12-29T18:20:56Z</time>
      </trkpt>
      <trkpt lat="35.192940" lon="-113.827530">
        <ele>1275.073</ele>
        <time>2018-12-29T18:21:16Z</time>
      </trkpt>
      <trkpt lat="35.193100" lon="-113.828180">
        <ele>1277.420</ele>
        <time>2018-12-29T18:21:36Z</time>
      </trkpt>
      <trkpt lat="35.193190" lon="-113.828580">
        <ele>1278.908</ele>
        <time>2018-12-29T18:21:56Z</time>
      </trkpt>
      <trkpt lat="35.193390" lon="-113.829470">
        <ele>1279.442</ele>
        <time>2018-12-29T18:22:16Z</time>
      </trkpt>
      <trkpt lat="35.193630" lon="-113.830700">
        <ele>1280.750</ele>
        <time>2018-12-29T18:22:36Z</time>
      </trkpt>
      <trkpt lat="35.193820" lon="-113.831890">
        <ele>1274.785</ele>
        <time>2018-12-29T18:22:56Z</time>
      </trkpt>
      <trkpt lat="35.193910" lon="-113.832470">
        <ele>1272.816</ele>
        <time>2018-12-29T18:23:16Z</time>
      </trkpt>
      <trkpt lat="35.193990" lon="-113.833030">
        <ele>1277.411</ele>
        <time>2018-12-29T18:23:36Z</time>
      </trkpt>
      <trkpt lat="35.194080" lon="-113.833810">
        <ele>1279.551</ele>
        <time>2018-12-29T18:23:56Z</time>
      </trkpt>
      <trkpt lat="35.194140" lon="-113.834360">
        <ele>1279.583</ele>
        <time>2018-12-29T18:24:16Z</time>
      </trkpt>
      <trkpt lat="35.194220" lon="-113.835320">
        <ele>1279.137</ele>
        <time>2018-12-29T18:24:36Z</time>
      </trkpt>
      <trkpt lat="35.194300" lon="-113.836410">
        <ele>1276.726</ele>
        <time>2018-12-29T18:24:56Z</time>
      </trkpt>
      <trkpt lat="35.194410" lon="-113.838620">
        <ele>1269.047</ele>
        <time>2018-12-29T18:25:16Z</time>
      </trkpt>
      <trkpt lat="35.194510" lon="-113.840540">
        <ele>1264.411</ele>
        <time>2018-12-29T18:25:36Z</time>
      </trkpt>
      <trkpt lat="35.194610" lon="-113.842540">
        <ele>1257.308</ele>
        <time>2018-12-29T18:25:56Z</time>
      </trkpt>
      <trkpt lat="35.194930" lon="-113.848540">
        <ele>1260.575</ele>
        <time>2018-12-29T18:26:16Z</time>
      </trkpt>
      <trkpt lat="35.195270" lon="-113.854900">
        <ele>1264.613</ele>
        <time>2018-12-29T18:26:36Z</time>
      </trkpt>
      <trkpt lat="35.195460" lon="-113.858780">
        <ele>1258.668</ele>
        <time>2018-12-29T18:26:56Z</time>
      </trkpt>
      <trkpt lat="35.195520" lon="-113.859810">
        <ele>1257.889</ele>
        <time>2018-12-29T18:27:16Z</time>
      </trkpt>
      <trkpt lat="35.195550" lon="-113.860360">
        <ele>1258.314</ele>
        <time>2018-12-29T18:27:36Z</time>
      </trkpt>
      <trkpt lat="35.195570" lon="-113.860870">
        <ele>1259.774</ele>
        <time>2018-12-29T18:27:56Z</time>
      </trkpt>
      <trkpt lat="35.195720" lon="-113.863480">
        <ele>1263.146</ele>
        <time>2018-12-29T18:28:16Z</time>
      </trkpt>
      <trkpt lat="35.195850" lon="-113.866130">
        <ele>1266.090</ele>
        <time>2018-12-29T18:28:36Z</time>
      </trkpt>
      <trkpt lat="35.196130" lon="-113.871440">
        <ele>1269.661</ele>
        <time>2018-12-29T18:28:56Z</time>
      </trkpt>
      <trkpt lat="35.196190" lon="-113.872470">
        <ele>1268.221</ele>
        <time>2018-12-29T18:29:16Z</time>
      </trkpt>
      <trkpt lat="35.196280" lon="-113.874170">
        <ele>1268.213</ele>
        <time>2018-12-29T18:29:36Z</time>
      </trkpt>
      <trkpt lat="35.196360" lon="-113.875790">
        <ele>1271.508</ele>
        <time>2018-12-29T18:29:56Z</time>
      </trkpt>
      <trkpt lat="35.196390" lon="-113.876230">
        <ele>1270.089</ele>
        <time>2018-12-29T18:30:16Z</time>
      </trkpt>
      <trkpt lat="35.196510" lon="-113.878510">
        <ele>1268.977</ele>
        <time>2018-12-29T18:30:36Z</time>
      </trkpt>
      <trkpt lat="35.196720" lon="-113.882510">
        <ele>1270.112</ele>
        <time>2018-12-29T18:30:56Z</time>
      </trkpt>
      <trkpt lat="35.196760" lon="-113.883380">
        <ele>1270.763</ele>
        <time>2018-12-29T18:31:16Z</time>
      </trkpt>
      <trkpt lat="35.196840" lon="-113.884780">
        <ele>1268.268</ele>
        <time>2018-12-29T18:31:36Z</time>
      </trkpt>
      <trkpt lat="35.196860" lon="-113.885240">
        <ele>1268.528</ele>
        <time>2018-12-29T18:31:56Z</time>
      </trkpt>
      <trkpt lat="35.196870" lon="-113.885410">
        <ele>1268.440</ele>
        <time>2018-12-29T18:32:16Z</time>
      </trkpt>
      <trkpt lat="35.196880" lon="-113.885570">
        <ele>1267.584</ele>
        <time>2018-12-29T18:32:36Z</time>
      </trkpt>
      <trkpt lat="35.196910" lon="-113.886160">
        <ele>1261.892</ele>
        <time>2018-12-29T18:32:56Z</time>
      </trkpt>
      <trkpt lat="35.196990" lon="-113.887590">
        <ele>1266.273</ele>
        <time>2018-12-29T18:33:16Z</time>
      </trkpt>
      <trkpt lat="35.197010" lon="-113.888180">
        <ele>1268.520</ele>
        <time>2018-12-29T18:33:36Z</time>
      </trkpt>
      <trkpt lat="35.197050" lon="-113.888920">
        <ele>1267.508</ele>
        <time>2018-12-29T18:33:56Z</time>
      </trkpt>
      <trkpt lat="35.197090" lon="-113.889670">
        <ele>1261.772</ele>
        <time>2018-12-29T18:34:16Z</time>
      </trkpt>
      <trkpt lat="35.197140" lon="-113.890490">
        <ele>1257.770</ele>
        <time>2018-12-29T18:34:36Z</time>
      </trkpt>
      <trkpt lat="35.197170" lon="-113.891180">
        <ele>1258.735</ele>
        <time>2018-12-29T18:34:56Z</time>
      </trkpt>
      <trkpt lat="35.197220" lon="-113.892020">
        <ele>1260.466</ele>
        <time>2018-12-29T18:35:16Z</time>
      </trkpt>
      <trkpt lat="35.197240" lon="-113.892510">
        <ele>1260.861</ele>
        <time>2018-12-29T18:35:36Z</time>
      </trkpt>
      <trkpt lat="35.197300" lon="-113.893660">
        <ele>1259.941</ele>
        <time>2018-12-29T18:35:56Z</time>
      </trkpt>
      <trkpt lat="35.197340" lon="-113.894340">
        <ele>1259.093</ele>
        <time>2018-12-29T18:36:16Z</time>
      </trkpt>
      <trkpt lat="35.197360" lon="-113.894790">
        <ele>1258.017</ele>
        <time>2018-12-29T18:36:36Z</time>
      </trkpt>
      <trkpt lat="35.197400" lon="-113.895680">
        <ele>1256.041</ele>
        <time>2018-12-29T18:36:56Z</time>
      </trkpt>
      <trkpt lat="35.197490" lon="-113.897400">
        <ele>1254.681</ele>
        <time>2018-12-29T18:37:16Z</time>
      </trkpt>
      <trkpt lat="35.197500" lon="-113.897640">
        <ele>1254.209</ele>
        <time>2018-12-29T18:37:36Z</time>
      </trkpt>
      <trkpt lat="35.197520" lon="-113.897880">
        <ele>1253.808</ele>
        <time>2018-12-29T18:37:56Z</time>
      </trkpt>
      <trkpt lat="35.197700" lon="-113.901270">
        <ele>1253.887</ele>
        <time>2018-12-29T18:38:16Z</time>
      </trkpt>
      <trkpt lat="35.197730" lon="-113.901870">
        <ele>1253.255</ele>
        <time>2018-12-29T18:38:36Z</time>
      </trkpt>
      <trkpt lat="35.197840" lon="-113.904110">
        <ele>1246.890</ele>
        <time>2018-12-29T18:38:56Z</time>
      </trkpt>
      <trkpt lat="35.197870" lon="-113.904540">
        <ele>1246.251</ele>
        <time>2018-12-29T18:39:16Z</time>
      </trkpt>
      <trkpt lat="35.197930" lon="-113.905830">
        <ele>1244.016</ele>
        <time>2018-12-29T18:39:36Z</time>
      </trkpt>
      <trkpt lat="35.197940" lon="-113.905900">
        <ele>1243.936</ele>
        <time>2018-12-29T18:39:56Z</time>
      </trkpt>
      <trkpt lat="35.197960" lon="-113.906400">
        <ele>1242.928</ele>
        <time>2018-12-29T18:40:16Z</time>
      </trkpt>
      <trkpt lat="35.198090" lon="-113.908770">
        <ele>1233.872</ele>
        <time>2018-12-29T18:40:36Z</time>
      </trkpt>
      <trkpt lat="35.198200" lon="-113.910900">
        <ele>1227.516</ele>
        <time>2018-12-29T18:40:56Z</time>
      </trkpt>
      <trkpt lat="35.198240" lon="-113.911540">
        <ele>1224.876</ele>
        <time>2018-12-29T18:41:16Z</time>
      </trkpt>
      <trkpt lat="35.198290" lon="-113.912320">
        <ele>1222.013</ele>
        <time>2018-12-29T18:41:36Z</time>
      </trkpt>
      <trkpt lat="35.198350" lon="-113.913470">
        <ele>1220.308</ele>
        <time>2018-12-29T18:41:56Z</time>
      </trkpt>
      <trkpt lat="35.198360" lon="-113.913730">
        <ele>1220.664</ele>
        <time>2018-12-29T18:42:16Z</time>
      </trkpt>
      <trkpt lat="35.198380" lon="-113.913980">
        <ele>1220.752</ele>
        <time>2018-12-29T18:42:36Z</time>
      </trkpt>
      <trkpt lat="35.198390" lon="-113.914190">
        <ele>1220.777</ele>
        <time>2018-12-29T18:42:56Z</time>
      </trkpt>
      <trkpt lat="35.198390" lon="-113.914260">
        <ele>1220.798</ele>
        <time>2018-12-29T18:43:16Z</time>
      </trkpt>
      <trkpt lat="35.198400" lon="-113.914390">
        <ele>1220.363</ele>
        <time>2018-12-29T18:43:36Z</time>
      </trkpt>
      <trkpt lat="35.198440" lon="-113.914800">
        <ele>1219.193</ele>
        <time>2018-12-29T18:43:56Z</time>
      </trkpt>
      <trkpt lat="35.198590" lon="-113.916140">
        <ele>1214.815</ele>
        <time>2018-12-29T18:44:16Z</time>
      </trkpt>
      <trkpt lat="35.198630" lon="-113.916460">
        <ele>1214.059</ele>
        <time>2018-12-29T18:44:36Z</time>
      </trkpt>
      <trkpt lat="35.198830" lon="-113.917760">
        <ele>1210.688</ele>
        <time>2018-12-29T18:44:56Z</time>
      </trkpt>
      <trkpt lat="35.198870" lon="-113.918030">
        <ele>1209.824</ele>
        <time>2018-12-29T18:45:16Z</time>
      </trkpt>
      <trkpt lat="35.198960" lon="-113.918550">
        <ele>1208.226</ele>
        <time>2018-12-29T18:45:36Z</time>
      </trkpt>
      <trkpt lat="35.199060" lon="-113.919130">
        <ele>1206.608</ele>
        <time>2018-12-29T18:45:56Z</time>
      </trkpt>
      <trkpt lat="35.199130" lon="-113.919450">
        <ele>1204.981</ele>
        <time>2018-12-29T18:46:16Z</time>
      </trkpt>
      <trkpt lat="35.199160" lon="-113.919590">
        <ele>1204.049</ele>
        <time>2018-12-29T18:46:36Z</time>
      </trkpt>
      <trkpt lat="35.199210" lon="-113.919830">
        <ele>1202.774</ele>
        <time>2018-12-29T18:46:56Z</time>
      </trkpt>
      <trkpt lat="35.199230" lon="-113.919950">
        <ele>1202.015</ele>
        <time>2018-12-29T18:47:16Z</time>
      </trkpt>
      <trkpt lat="35.199290" lon="-113.920190">
        <ele>1200.860</ele>
        <time>2018-12-29T18:47:36Z</time>
      </trkpt>
      <trkpt lat="35.199350" lon="-113.920450">
        <ele>1200.010</ele>
        <time>2018-12-29T18:47:56Z</time>
      </trkpt>
      <trkpt lat="35.199400" lon="-113.920700">
        <ele>1199.312</ele>
        <time>2018-12-29T18:48:16Z</time>
      </trkpt>
      <trkpt lat="35.199460" lon="-113.920940">
        <ele>1198.486</ele>
        <time>2018-12-29T18:48:36Z</time>
      </trkpt>
      <trkpt lat="35.199600" lon="-113.921500">
        <ele>1196.162</ele>
        <time>2018-12-29T18:48:56Z</time>
      </trkpt>
      <trkpt lat="35.200110" lon="-113.923620">
        <ele>1186.283</ele>
        <time>2018-12-29T18:49:16Z</time>
      </trkpt>
      <trkpt lat="35.200330" lon="-113.924550">
        <ele>1183.811</ele>
        <time>2018-12-29T18:49:36Z</time>
      </trkpt>
      <trkpt lat="35.200500" lon="-113.925220">
        <ele>1182.008</ele>
        <time>2018-12-29T18:49:56Z</time>
      </trkpt>
      <trkpt lat="35.200620" lon="-113.925730">
        <ele>1179.089</ele>
        <time>2018-12-29T18:50:16Z</time>
      </trkpt>
      <trkpt lat="35.201160" lon="-113.927930">
        <ele>1171.387</ele>
        <time>2018-12-29T18:50:36Z</time>
      </trkpt>
      <trkpt lat="35.201660" lon="-113.929980">
        <ele>1160.692</ele>
        <time>2018-12-29T18:50:56Z</time>
      </trkpt>
      <trkpt lat="35.202130" lon="-113.931940">
        <ele>1159.733</ele>
        <time>2018-12-29T18:51:16Z</time>
      </trkpt>
      <trkpt lat="35.202440" lon="-113.933220">
        <ele>1154.228</ele>
        <time>2018-12-29T18:51:36Z</time>
      </trkpt>
      <trkpt lat="35.202700" lon="-113.934260">
        <ele>1149.988</ele>
        <time>2018-12-29T18:51:56Z</time>
      </trkpt>
      <trkpt lat="35.202880" lon="-113.935030">
        <ele>1148.470</ele>
        <time>2018-12-29T18:52:16Z</time>
      </trkpt>
      <trkpt lat="35.203010" lon="-113.935550">
        <ele>1148.024</ele>
        <time>2018-12-29T18:52:36Z</time>
      </trkpt>
      <trkpt lat="35.203140" lon="-113.936060">
        <ele>1147.395</ele>
        <time>2018-12-29T18:52:56Z</time>
      </trkpt>
      <trkpt lat="35.203200" lon="-113.936320">
        <ele>1147.149</ele>
        <time>2018-12-29T18:53:16Z</time>
      </trkpt>
      <trkpt lat="35.203860" lon="-113.939030">
        <ele>1137.423</ele>
        <time>2018-12-29T18:53:36Z</time>
      </trkpt>
      <trkpt lat="35.204530" lon="-113.941790">
        <ele>1133.508</ele>
        <time>2018-12-29T18:53:56Z</time>
      </trkpt>
      <trkpt lat="35.205240" lon="-113.944700">
        <ele>1123.872</ele>
        <time>2018-12-29T18:54:16Z</time>
      </trkpt>
      <trkpt lat="35.205650" lon="-113.946390">
        <ele>1122.790</ele>
        <time>2018-12-29T18:54:36Z</time>
      </trkpt>
      <trkpt lat="35.206480" lon="-113.949830">
        <ele>1120.685</ele>
        <time>2018-12-29T18:54:56Z</time>
      </trkpt>
      <trkpt lat="35.207010" lon="-113.952010">
        <ele>1116.696</ele>
        <time>2018-12-29T18:55:16Z</time>
      </trkpt>
      <trkpt lat="35.207080" lon="-113.952280">
        <ele>1116.221</ele>
        <time>2018-12-29T18:55:36Z</time>
      </trkpt>
      <trkpt lat="35.207150" lon="-113.952560">
        <ele>1115.931</ele>
        <time>2018-12-29T18:55:56Z</time>
      </trkpt>
      <trkpt lat="35.207270" lon="-113.953080">
        <ele>1115.323</ele>
        <time>2018-12-29T18:56:16Z</time>
      </trkpt>
      <trkpt lat="35.207430" lon="-113.953750">
        <ele>1114.557</ele>
        <time>2018-12-29T18:56:36Z</time>
      </trkpt>
      <trkpt lat="35.207730" lon="-113.954970">
        <ele>1112.865</ele>
        <time>2018-12-29T18:56:56Z</time>
      </trkpt>
      <trkpt lat="35.207910" lon="-113.955710">
        <ele>1111.568</ele>
        <time>2018-12-29T18:57:16Z</time>
      </trkpt>
      <trkpt lat="35.208000" lon="-113.956070">
        <ele>1110.914</ele>
        <time>2018-12-29T18:57:36Z</time>
      </trkpt>
      <trkpt lat="35.208360" lon="-113.957550">
        <ele>1110.608</ele>
        <time>2018-12-29T18:57:56Z</time>
      </trkpt>
      <trkpt lat="35.208480" lon="-113.958060">
        <ele>1110.629</ele>
        <time>2018-12-29T18:58:16Z</time>
      </trkpt>
      <trkpt lat="35.208650" lon="-113.958760">
        <ele>1110.637</ele>
        <time>2018-12-29T18:58:36Z</time>
      </trkpt>
      <trkpt lat="35.208990" lon="-113.960160">
        <ele>1110.612</ele>
        <time>2018-12-29T18:58:56Z</time>
      </trkpt>
      <trkpt lat="35.209170" lon="-113.960870">
        <ele>1110.453</ele>
        <time>2018-12-29T18:59:16Z</time>
      </trkpt>
      <trkpt lat="35.209510" lon="-113.962270">
        <ele>1106.978</ele>
        <time>2018-12-29T18:59:36Z</time>
      </trkpt>
      <trkpt lat="35.210140" lon="-113.964850">
        <ele>1103.778</ele>
        <time>2018-12-29T18:59:56Z</time>
      </trkpt>
      <trkpt lat="35.210740" lon="-113.967340">
        <ele>1101.030</ele>
        <time>2018-12-29T19:00:16Z</time>
      </trkpt>
      <trkpt lat="35.210860" lon="-113.967830">
        <ele>1100.414</ele>
        <time>2018-12-29T19:00:36Z</time>
      </trkpt>
      <trkpt lat="35.210980" lon="-113.968320">
        <ele>1099.632</ele>
        <time>2018-12-29T19:00:56Z</time>
      </trkpt>
      <trkpt lat="35.211180" lon="-113.969110">
        <ele>1098.892</ele>
        <time>2018-12-29T19:01:16Z</time>
      </trkpt>
      <trkpt lat="35.211830" lon="-113.971810">
        <ele>1098.511</ele>
        <time>2018-12-29T19:01:36Z</time>
      </trkpt>
      <trkpt lat="35.211930" lon="-113.972200">
        <ele>1098.308</ele>
        <time>2018-12-29T19:01:56Z</time>
      </trkpt>
      <trkpt lat="35.212190" lon="-113.973260">
        <ele>1097.236</ele>
        <time>2018-12-29T19:02:16Z</time>
      </trkpt>
      <trkpt lat="35.212630" lon="-113.975060">
        <ele>1093.294</ele>
        <time>2018-12-29T19:02:36Z</time>
      </trkpt>
      <trkpt lat="35.212740" lon="-113.975510">
        <ele>1092.389</ele>
        <time>2018-12-29T19:02:56Z</time>
      </trkpt>
      <trkpt lat="35.212810" lon="-113.975820">
        <ele>1091.950</ele>
        <time>2018-12-29T19:03:16Z</time>
      </trkpt>
      <trkpt lat="35.212880" lon="-113.976110">
        <ele>1091.495</ele>
        <time>2018-12-29T19:03:36Z</time>
      </trkpt>
      <trkpt lat="35.213300" lon="-113.977820">
        <ele>1088.345</ele>
        <time>2018-12-29T19:03:56Z</time>
      </trkpt>
      <trkpt lat="35.213360" lon="-113.978070">
        <ele>1087.947</ele>
        <time>2018-12-29T19:04:16Z</time>
      </trkpt>
      <trkpt lat="35.214290" lon="-113.981910">
        <ele>1084.981</ele>
        <time>2018-12-29T19:04:36Z</time>
      </trkpt>
      <trkpt lat="35.214770" lon="-113.983850">
        <ele>1080.559</ele>
        <time>2018-12-29T19:04:56Z</time>
      </trkpt>
      <trkpt lat="35.215390" lon="-113.986410">
        <ele>1077.303</ele>
        <time>2018-12-29T19:05:16Z</time>
      </trkpt>
      <trkpt lat="35.215500" lon="-113.986850">
        <ele>1076.723</ele>
        <time>2018-12-29T19:05:36Z</time>
      </trkpt>
      <trkpt lat="35.216080" lon="-113.989240">
        <ele>1074.608</ele>
        <time>2018-12-29T19:05:56Z</time>
      </trkpt>
      <trkpt lat="35.216330" lon="-113.990310">
        <ele>1073.928</ele>
        <time>2018-12-29T19:06:16Z</time>
      </trkpt>
      <trkpt lat="35.216390" lon="-113.990550">
        <ele>1073.836</ele>
        <time>2018-12-29T19:06:36Z</time>
      </trkpt>
      <trkpt lat="35.216430" lon="-113.990730">
        <ele>1073.841</ele>
        <time>2018-12-29T19:06:56Z</time>
      </trkpt>
      <trkpt lat="35.216460" lon="-113.990880">
        <ele>1073.822</ele>
        <time>2018-12-29T19:07:16Z</time>
      </trkpt>
      <trkpt lat="35.216530" lon="-113.991180">
        <ele>1073.427</ele>
        <time>2018-12-29T19:07:36Z</time>
      </trkpt>
      <trkpt lat="35.216580" lon="-113.991420">
        <ele>1073.267</ele>
        <time>2018-12-29T19:07:56Z</time>
      </trkpt>
      <trkpt lat="35.216610" lon="-113.991620">
        <ele>1073.079</ele>
        <time>2018-12-29T19:08:16Z</time>
      </trkpt>
      <trkpt lat="35.216680" lon="-113.991970">
        <ele>1072.293</ele>
        <time>2018-12-29T19:08:36Z</time>
      </trkpt>
      <trkpt lat="35.216760" lon="-113.992340">
        <ele>1071.216</ele>
        <time>2018-12-29T19:08:56Z</time>
      </trkpt>
      <trkpt lat="35.216810" lon="-113.992640">
        <ele>1070.676</ele>
        <time>2018-12-29T19:09:16Z</time>
      </trkpt>
      <trkpt lat="35.216860" lon="-113.992880">
        <ele>1070.013</ele>
        <time>2018-12-29T19:09:36Z</time>
      </trkpt>
      <trkpt lat="35.216890" lon="-113.993110">
        <ele>1069.708</ele>
        <time>2018-12-29T19:09:56Z</time>
      </trkpt>
      <trkpt lat="35.216940" lon="-113.993370">
        <ele>1069.394</ele>
        <time>2018-12-29T19:10:16Z</time>
      </trkpt>
      <trkpt lat="35.217010" lon="-113.993860">
        <ele>1068.652</ele>
        <time>2018-12-29T19:10:36Z</time>
      </trkpt>
      <trkpt lat="35.217060" lon="-113.994190">
        <ele>1068.177</ele>
        <time>2018-12-29T19:10:56Z</time>
      </trkpt>
      <trkpt lat="35.217100" lon="-113.994470">
        <ele>1067.888</ele>
        <time>2018-12-29T19:11:16Z</time>
      </trkpt>
      <trkpt lat="35.217150" lon="-113.994850">
        <ele>1067.393</ele>
        <time>2018-12-29T19:11:36Z</time>
      </trkpt>
      <trkpt lat="35.217190" lon="-113.995130">
        <ele>1067.083</ele>
        <time>2018-12-29T19:11:56Z</time>
      </trkpt>
      <trkpt lat="35.217240" lon="-113.995540">
        <ele>1066.675</ele>
        <time>2018-12-29T19:12:16Z</time>
      </trkpt>
      <trkpt lat="35.217280" lon="-113.995950">
        <ele>1066.259</ele>
        <time>2018-12-29T19:12:36Z</time>
      </trkpt>
      <trkpt lat="35.217310" lon="-113.996250">
        <ele>1065.989</ele>
        <time>2018-12-29T19:12:56Z</time>
      </trkpt>
      <trkpt lat="35.217340" lon="-113.996550">
        <ele>1065.806</ele>
        <time>2018-12-29T19:13:16Z</time>
      </trkpt>
      <trkpt lat="35.217370" lon="-113.996960">
        <ele>1065.426</ele>
        <time>2018-12-29T19:13:36Z</time>
      </trkpt>
      <trkpt lat="35.217400" lon="-113.997350">
        <ele>1065.208</ele>
        <time>2018-12-29T19:13:56Z</time>
      </trkpt>
      <trkpt lat="35.217450" lon="-113.998010">
        <ele>1065.021</ele>
        <time>2018-12-29T19:14:16Z</time>
      </trkpt>
      <trkpt lat="35.217480" lon="-113.998570">
        <ele>1064.869</ele>
        <time>2018-12-29T19:14:36Z</time>
      </trkpt>
      <trkpt lat="35.217500" lon="-113.999000">
        <ele>1064.524</ele>
        <time>2018-12-29T19:14:56Z</time>
      </trkpt>
      <trkpt lat="35.217500" lon="-113.999280">
        <ele>1064.495</ele>
        <time>2018-12-29T19:15:16Z</time>
      </trkpt>
      <trkpt lat="35.217510" lon="-113.999540">
        <ele>1064.260</ele>
        <time>2018-12-29T19:15:36Z</time>
      </trkpt>
      <trkpt lat="35.217520" lon="-113.999930">
        <ele>1063.910</ele>
        <time>2018-12-29T19:15:56Z</time>
      </trkpt>
      <trkpt lat="35.217530" lon="-114.000230">
        <ele>1063.772</ele>
        <time>2018-12-29T19:16:16Z</time>
      </trkpt>
      <trkpt lat="35.217530" lon="-114.000550">
        <ele>1063.676</ele>
        <time>2018-12-29T19:16:36Z</time>
      </trkpt>
      <trkpt lat="35.217530" lon="-114.000950">
        <ele>1063.581</ele>
        <time>2018-12-29T19:16:56Z</time>
      </trkpt>
      <trkpt lat="35.217530" lon="-114.001200">
        <ele>1062.961</ele>
        <time>2018-12-29T19:17:16Z</time>
      </trkpt>
      <trkpt lat="35.217520" lon="-114.001650">
        <ele>1061.917</ele>
        <time>2018-12-29T19:17:36Z</time>
      </trkpt>
      <trkpt lat="35.217490" lon="-114.003380">
        <ele>1062.208</ele>
        <time>2018-12-29T19:17:56Z</time>
      </trkpt>
      <trkpt lat="35.217480" lon="-114.004350">
        <ele>1061.611</ele>
        <time>2018-12-29T19:18:16Z</time>
      </trkpt>
      <trkpt lat="35.217460" lon="-114.005280">
        <ele>1060.549</ele>
        <time>2018-12-29T19:18:36Z</time>
      </trkpt>
      <trkpt lat="35.217440" lon="-114.006200">
        <ele>1059.584</ele>
        <time>2018-12-29T19:18:56Z</time>
      </trkpt>
      <trkpt lat="35.217440" lon="-114.006430">
        <ele>1059.465</ele>
        <time>2018-12-29T19:19:16Z</time>
      </trkpt>
      <trkpt lat="35.217440" lon="-114.006440">
        <ele>1059.460</ele>
        <time>2018-12-29T19:19:36Z</time>
      </trkpt>
      <trkpt lat="35.217430" lon="-114.006930">
        <ele>1058.810</ele>
        <time>2018-12-29T19:19:56Z</time>
      </trkpt>
      <trkpt lat="35.217430" lon="-114.007320">
        <ele>1058.482</ele>
        <time>2018-12-29T19:20:16Z</time>
      </trkpt>
      <trkpt lat="35.217420" lon="-114.007570">
        <ele>1058.246</ele>
        <time>2018-12-29T19:20:36Z</time>
      </trkpt>
      <trkpt lat="35.217410" lon="-114.008290">
        <ele>1057.551</ele>
        <time>2018-12-29T19:20:56Z</time>
      </trkpt>
      <trkpt lat="35.217380" lon="-114.009920">
        <ele>1057.001</ele>
        <time>2018-12-29T19:21:16Z</time>
      </trkpt>
      <trkpt lat="35.217370" lon="-114.010330">
        <ele>1056.811</ele>
        <time>2018-12-29T19:21:36Z</time>
      </trkpt>
      <trkpt lat="35.217360" lon="-114.010550">
        <ele>1056.608</ele>
        <time>2018-12-29T19:21:56Z</time>
      </trkpt>
      <trkpt lat="35.217360" lon="-114.010730">
        <ele>1056.478</ele>
        <time>2018-12-29T19:22:16Z</time>
      </trkpt>
      <trkpt lat="35.217360" lon="-114.010740">
        <ele>1056.346</ele>
        <time>2018-12-29T19:22:36Z</time>
      </trkpt>
      <trkpt lat="35.217360" lon="-114.010750">
        <ele>1056.391</ele>
        <time>2018-12-29T19:22:56Z</time>
      </trkpt>
      <trkpt lat="35.217360" lon="-114.010770">
        <ele>1056.382</ele>
        <time>2018-12-29T19:23:16Z</time>
      </trkpt>
      <trkpt lat="35.217360" lon="-114.010769">
        <ele>1056.367</ele>
        <time>2018-12-29T19:23:36Z</time>
      </trkpt>
      <trkpt lat="35.217390" lon="-114.010800">
        <ele>1056.257</ele>
        <time>2018-12-29T19:23:56Z</time>
      </trkpt>
      <trkpt lat="35.217400" lon="-114.010820">
        <ele>1056.179</ele>
        <time>2018-12-29T19:24:16Z</time>
      </trkpt>
      <trkpt lat="35.217410" lon="-114.010840">
        <ele>1056.063</ele>
        <time>2018-12-29T19:24:36Z</time>
      </trkpt>
      <trkpt lat="35.217420" lon="-114.010870">
        <ele>1056.041</ele>
        <time>2018-12-29T19:24:56Z</time>
      </trkpt>
      <trkpt lat="35.217420" lon="-114.010980">
        <ele>1055.781</ele>
        <time>2018-12-29T19:25:16Z</time>
      </trkpt>
      <trkpt lat="35.217430" lon="-114.011240">
        <ele>1055.409</ele>
        <time>2018-12-29T19:25:36Z</time>
      </trkpt>
      <trkpt lat="35.217440" lon="-114.011270">
        <ele>1055.408</ele>
        <time>2018-12-29T19:25:56Z</time>
      </trkpt>
      <trkpt lat="35.217450" lon="-114.011710">
        <ele>1055.487</ele>
        <time>2018-12-29T19:26:16Z</time>
      </trkpt>
      <trkpt lat="35.217470" lon="-114.012130">
        <ele>1056.015</ele>
        <time>2018-12-29T19:26:36Z</time>
      </trkpt>
      <trkpt lat="35.217480" lon="-114.012260">
        <ele>1056.250</ele>
        <time>2018-12-29T19:26:56Z</time>
      </trkpt>
      <trkpt lat="35.217490" lon="-114.012360">
        <ele>1056.321</ele>
        <time>2018-12-29T19:27:16Z</time>
      </trkpt>
      <trkpt lat="35.217500" lon="-114.012440">
        <ele>1056.346</ele>
        <time>2018-12-29T19:27:36Z</time>
      </trkpt>
      <trkpt lat="35.217510" lon="-114.012510">
        <ele>1056.316</ele>
        <time>2018-12-29T19:27:56Z</time>
      </trkpt>
      <trkpt lat="35.217530" lon="-114.012580">
        <ele>1056.478</ele>
        <time>2018-12-29T19:28:16Z</time>
      </trkpt>
      <trkpt lat="35.217550" lon="-114.012640">
        <ele>1056.412</ele>
        <time>2018-12-29T19:28:36Z</time>
      </trkpt>
      <trkpt lat="35.217570" lon="-114.012700">
        <ele>1056.497</ele>
        <time>2018-12-29T19:28:56Z</time>
      </trkpt>
      <trkpt lat="35.217600" lon="-114.012780">
        <ele>1056.423</ele>
        <time>2018-12-29T19:29:16Z</time>
      </trkpt>
      <trkpt lat="35.217620" lon="-114.012840">
        <ele>1056.425</ele>
        <time>2018-12-29T19:29:36Z</time>
      </trkpt>
      <trkpt lat="35.217650" lon="-114.012900">
        <ele>1056.408</ele>
        <time>2018-12-29T19:29:56Z</time>
      </trkpt>
      <trkpt lat="35.217670" lon="-114.012950">
        <ele>1056.352</ele>
        <time>2018-12-29T19:30:16Z</time>
      </trkpt>
      <trkpt lat="35.217700" lon="-114.013000">
        <ele>1056.360</ele>
        <time>2018-12-29T19:30:36Z</time>
      </trkpt>
      <trkpt lat="35.217740" lon="-114.013070">
        <ele>1056.285</ele>
        <time>2018-12-29T19:30:56Z</time>
      </trkpt>
      <trkpt lat="35.217830" lon="-114.013190">
        <ele>1056.156</ele>
        <time>2018-12-29T19:31:16Z</time>
      </trkpt>
      <trkpt lat="35.217880" lon="-114.013260">
        <ele>1056.061</ele>
        <time>2018-12-29T19:31:36Z</time>
      </trkpt>
      <trkpt lat="35.217920" lon="-114.013300">
        <ele>1056.051</ele>
        <time>2018-12-29T19:31:56Z</time>
      </trkpt>
      <trkpt lat="35.217970" lon="-114.013350">
        <ele>1055.963</ele>
        <time>2018-12-29T19:32:16Z</time>
      </trkpt>
      <trkpt lat="35.218020" lon="-114.013400">
        <ele>1055.897</ele>
        <time>2018-12-29T19:32:36Z</time>
      </trkpt>
      <trkpt lat="35.218060" lon="-114.013430">
        <ele>1055.754</ele>
        <time>2018-12-29T19:32:56Z</time>
      </trkpt>
      <trkpt lat="35.218100" lon="-114.013460">
        <ele>1055.756</ele>
        <time>2018-12-29T19:33:16Z</time>
      </trkpt>
      <trkpt lat="35.218150" lon="-114.013490">
        <ele>1055.611</ele>
        <time>2018-12-29T19:33:36Z</time>
      </trkpt>
      <trkpt lat="35.218190" lon="-114.013510">
        <ele>1055.508</ele>
        <time>2018-12-29T19:33:56Z</time>
      </trkpt>
      <trkpt lat="35.218210" lon="-114.013530">
        <ele>1055.448</ele>
        <time>2018-12-29T19:34:16Z</time>
      </trkpt>
      <trkpt lat="35.218250" lon="-114.013540">
        <ele>1055.226</ele>
        <time>2018-12-29T19:34:36Z</time>
      </trkpt>
      <trkpt lat="35.218280" lon="-114.013550">
        <ele>1055.161</ele>
        <time>2018-12-29T19:34:56Z</time>
      </trkpt>
      <trkpt lat="35.218320" lon="-114.013570">
        <ele>1055.082</ele>
        <time>2018-12-29T19:35:16Z</time>
      </trkpt>
      <trkpt lat="35.218360" lon="-114.013570">
        <ele>1054.967</ele>
        <time>2018-12-29T19:35:36Z</time>
      </trkpt>
      <trkpt lat="35.218400" lon="-114.013580">
        <ele>1054.747</ele>
        <time>2018-12-29T19:35:56Z</time>
      </trkpt>
      <trkpt lat="35.218430" lon="-114.013580">
        <ele>1054.689</ele>
        <time>2018-12-29T19:36:16Z</time>
      </trkpt>
      <trkpt lat="35.218470" lon="-114.013580">
        <ele>1054.513</ele>
        <time>2018-12-29T19:36:36Z</time>
      </trkpt>
      <trkpt lat="35.218540" lon="-114.013580">
        <ele>1054.336</ele>
        <time>2018-12-29T19:36:56Z</time>
      </trkpt>
      <trkpt lat="35.218600" lon="-114.013570">
        <ele>1054.117</ele>
        <time>2018-12-29T19:37:16Z</time>
      </trkpt>
      <trkpt lat="35.218620" lon="-114.013570">
        <ele>1054.018</ele>
        <time>2018-12-29T19:37:36Z</time>
      </trkpt>
      <trkpt lat="35.218670" lon="-114.013560">
        <ele>1053.808</ele>
        <time>2018-12-29T19:37:56Z</time>
      </trkpt>
      <trkpt lat="35.218710" lon="-114.013550">
        <ele>1053.796</ele>
        <time>2018-12-29T19:38:16Z</time>
      </trkpt>
      <trkpt lat="35.218740" lon="-114.013540">
        <ele>1053.624</ele>
        <time>2018-12-29T19:38:36Z</time>
      </trkpt>
      <trkpt lat="35.218800" lon="-114.013510">
        <ele>1053.529</ele>
        <time>2018-12-29T19:38:56Z</time>
      </trkpt>
      <trkpt lat="35.218850" lon="-114.013480">
        <ele>1053.470</ele>
        <time>2018-12-29T19:39:16Z</time>
      </trkpt>
      <trkpt lat="35.218900" lon="-114.013450">
        <ele>1053.395</ele>
        <time>2018-12-29T19:39:36Z</time>
      </trkpt>
      <trkpt lat="35.218930" lon="-114.013420">
        <ele>1053.215</ele>
        <time>2018-12-29T19:39:56Z</time>
      </trkpt>
      <trkpt lat="35.218980" lon="-114.013380">
        <ele>1053.147</ele>
        <time>2018-12-29T19:40:16Z</time>
      </trkpt>
      <trkpt lat="35.219010" lon="-114.013350">
        <ele>1053.111</ele>
        <time>2018-12-29T19:40:36Z</time>
      </trkpt>
      <trkpt lat="35.219040" lon="-114.013320">
        <ele>1053.045</ele>
        <time>2018-12-29T19:40:56Z</time>
      </trkpt>
      <trkpt lat="35.219080" lon="-114.013270">
        <ele>1053.047</ele>
        <time>2018-12-29T19:41:16Z</time>
      </trkpt>
      <trkpt lat="35.219120" lon="-114.013210">
        <ele>1053.011</ele>
        <time>2018-12-29T19:41:36Z</time>
      </trkpt>
      <trkpt lat="35.219150" lon="-114.013160">
        <ele>1053.008</ele>
        <time>2018-12-29T19:41:56Z</time>
      </trkpt>
      <trkpt lat="35.219170" lon="-114.013120">
        <ele>1053.047</ele>
        <time>2018-12-29T19:42:16Z</time>
      </trkpt>
      <trkpt lat="35.219190" lon="-114.013080">
        <ele>1053.025</ele>
        <time>2018-12-29T19:42:36Z</time>
      </trkpt>
      <trkpt lat="35.219210" lon="-114.013030">
        <ele>1053.070</ele>
        <time>2018-12-29T19:42:56Z</time>
      </trkpt>
      <trkpt lat="35.219220" lon="-114.012990">
        <ele>1052.951</ele>
        <time>2018-12-29T19:43:16Z</time>
      </trkpt>
      <trkpt lat="35.219250" lon="-114.012910">
        <ele>1052.916</ele>
        <time>2018-12-29T19:43:36Z</time>
      </trkpt>
      <trkpt lat="35.219260" lon="-114.012870">
        <ele>1052.926</ele>
        <time>2018-12-29T19:43:56Z</time>
      </trkpt>
      <trkpt lat="35.219260" lon="-114.012840">
        <ele>1052.998</ele>
        <time>2018-12-29T19:44:16Z</time>
      </trkpt>
      <trkpt lat="35.219270" lon="-114.012760">
        <ele>1052.822</ele>
        <time>2018-12-29T19:44:36Z</time>
      </trkpt>
      <trkpt lat="35.219280" lon="-114.012710">
        <ele>1052.837</ele>
        <time>2018-12-29T19:44:56Z</time>
      </trkpt>
      <trkpt lat="35.219280" lon="-114.012660">
        <ele>1052.849</ele>
        <time>2018-12-29T19:45:16Z</time>
      </trkpt>
      <trkpt lat="35.219280" lon="-114.012600">
        <ele>1052.713</ele>
        <time>2018-12-29T19:45:36Z</time>
      </trkpt>
      <trkpt lat="35.219280" lon="-114.012540">
        <ele>1052.708</ele>
        <time>2018-12-29T19:45:56Z</time>
      </trkpt>
      <trkpt lat="35.219280" lon="-114.012490">
        <ele>1052.776</ele>
        <time>2018-12-29T19:46:16Z</time>
      </trkpt>
      <trkpt lat="35.219270" lon="-114.012440">
        <ele>1052.744</ele>
        <time>2018-12-29T19:46:36Z</time>
      </trkpt>
      <trkpt lat="35.219260" lon="-114.012400">
        <ele>1052.769</ele>
        <time>2018-12-29T19:46:56Z</time>
      </trkpt>
      <trkpt lat="35.219250" lon="-114.012350">
        <ele>1052.690</ele>
        <time>2018-12-29T19:47:16Z</time>
      </trkpt>
      <trkpt lat="35.219240" lon="-114.012290">
        <ele>1052.695</ele>
        <time>2018-12-29T19:47:36Z</time>
      </trkpt>
      <trkpt lat="35.219220" lon="-114.012240">
        <ele>1052.525</ele>
        <time>2018-12-29T19:47:56Z</time>
      </trkpt>
      <trkpt lat="35.219200" lon="-114.012200">
        <ele>1052.587</ele>
        <time>2018-12-29T19:48:16Z</time>
      </trkpt>
      <trkpt lat="35.219170" lon="-114.012150">
        <ele>1052.591</ele>
        <time>2018-12-29T19:48:36Z</time>
      </trkpt>
      <trkpt lat="35.219150" lon="-114.012110">
        <ele>1052.491</ele>
        <time>2018-12-29T19:48:56Z</time>
      </trkpt>
      <trkpt lat="35.218530" lon="-114.011130">
        <ele>1053.881</ele>
        <time>2018-12-29T19:49:16Z</time>
      </trkpt>
      <trkpt lat="35.218290" lon="-114.010760">
        <ele>1054.719</ele>
        <time>2018-12-29T19:49:36Z</time>
      </trkpt>
      <trkpt lat="35.218286" lon="-114.010755">
        <ele>1054.708</ele>
        <time>2018-12-29T19:49:56Z</time>
      </trkpt>
      <trkpt lat="35.218140" lon="-114.010670">
        <ele>1055.142</ele>
        <time>2018-12-29T19:50:16Z</time>
      </trkpt>
      <trkpt lat="35.218070" lon="-114.010640">
        <ele>1055.380</ele>
        <time>2018-12-29T19:50:36Z</time>
      </trkpt>
      <trkpt lat="35.218050" lon="-114.010630">
        <ele>1055.365</ele>
        <time>2018-12-29T19:50:56Z</time>
      </trkpt>
      <trkpt lat="35.217990" lon="-114.010620">
        <ele>1055.546</ele>
        <time>2018-12-29T19:51:16Z</time>
      </trkpt>
      <trkpt lat="35.217950" lon="-114.010610">
        <ele>1055.671</ele>
        <time>2018-12-29T19:51:36Z</time>
      </trkpt>
      <trkpt lat="35.217930" lon="-114.010600">
        <ele>1055.691</ele>
        <time>2018-12-29T19:51:56Z</time>
      </trkpt>
      <trkpt lat="35.217900" lon="-114.010600">
        <ele>1055.793</ele>
        <time>2018-12-29T19:52:16Z</time>
      </trkpt>
      <trkpt lat="35.217870" lon="-114.010590">
        <ele>1055.727</ele>
        <time>2018-12-29T19:52:36Z</time>
      </trkpt>
      <trkpt lat="35.217830" lon="-114.010590">
        <ele>1055.849</ele>
        <time>2018-12-29T19:52:56Z</time>
      </trkpt>
      <trkpt lat="35.217790" lon="-114.010600">
        <ele>1055.902</ele>
        <time>2018-12-29T19:53:16Z</time>
      </trkpt>
      <trkpt lat="35.217760" lon="-114.010610">
        <ele>1055.922</ele>
        <time>2018-12-29T19:53:36Z</time>
      </trkpt>
      <trkpt lat="35.217710" lon="-114.010620">
        <ele>1056.008</ele>
        <time>2018-12-29T19:53:56Z</time>
      </trkpt>
      <trkpt lat="35.217610" lon="-114.010650">
        <ele>1056.247</ele>
        <time>2018-12-29T19:54:16Z</time>
      </trkpt>
      <trkpt lat="35.217550" lon="-114.010690">
        <ele>1056.285</ele>
        <time>2018-12-29T19:54:36Z</time>
      </trkpt>
      <trkpt lat="35.217510" lon="-114.010710">
        <ele>1056.290</ele>
        <time>2018-12-29T19:54:56Z</time>
      </trkpt>
      <trkpt lat="35.217480" lon="-114.010720">
        <ele>1056.281</ele>
        <time>2018-12-29T19:55:16Z</time>
      </trkpt>
      <trkpt lat="35.217450" lon="-114.010720">
        <ele>1056.376</ele>
        <time>2018-12-29T19:55:36Z</time>
      </trkpt>
      <trkpt lat="35.217410" lon="-114.010710">
        <ele>1056.436</ele>
        <time>2018-12-29T19:55:56Z</time>
      </trkpt>
      <trkpt lat="35.217310" lon="-114.010810">
        <ele>1056.378</ele>
        <time>2018-12-29T19:56:16Z</time>
      </trkpt>
      <trkpt lat="35.217070" lon="-114.011040">
        <ele>1056.772</ele>
        <time>2018-12-29T19:56:36Z</time>
      </trkpt>
      <trkpt lat="35.217060" lon="-114.011040">
        <ele>1056.854</ele>
        <time>2018-12-29T19:56:56Z</time>
      </trkpt>
      <trkpt lat="35.217040" lon="-114.011060">
        <ele>1056.956</ele>
        <time>2018-12-29T19:57:16Z</time>
      </trkpt>
      <trkpt lat="35.216940" lon="-114.011160">
        <ele>1057.211</ele>
        <time>2018-12-29T19:57:36Z</time>
      </trkpt>
      <trkpt lat="35.216270" lon="-114.011820">
        <ele>1059.308</ele>
        <time>2018-12-29T19:57:56Z</time>
      </trkpt>
      <trkpt lat="35.216120" lon="-114.011970">
        <ele>1059.778</ele>
        <time>2018-12-29T19:58:16Z</time>
      </trkpt>
      <trkpt lat="35.215970" lon="-114.012120">
        <ele>1060.196</ele>
        <time>2018-12-29T19:58:36Z</time>
      </trkpt>
      <trkpt lat="35.215590" lon="-114.012470">
        <ele>1060.711</ele>
        <time>2018-12-29T19:58:56Z</time>
      </trkpt>
      <trkpt lat="35.215220" lon="-114.012820">
        <ele>1060.932</ele>
        <time>2018-12-29T19:59:16Z</time>
      </trkpt>
      <trkpt lat="35.214940" lon="-114.013090">
        <ele>1060.817</ele>
        <time>2018-12-29T19:59:36Z</time>
      </trkpt>
      <trkpt lat="35.214930" lon="-114.013100">
        <ele>1060.867</ele>
        <time>2018-12-29T19:59:56Z</time>
      </trkpt>
      <trkpt lat="35.214810" lon="-114.013110">
        <ele>1060.979</ele>
        <time>2018-12-29T20:00:16Z</time>
      </trkpt>
      <trkpt lat="35.214530" lon="-114.013390">
        <ele>1060.543</ele>
        <time>2018-12-29T20:00:36Z</time>
      </trkpt>
      <trkpt lat="35.213890" lon="-114.014020">
        <ele>1061.018</ele>
        <time>2018-12-29T20:00:56Z</time>
      </trkpt>
      <trkpt lat="35.213120" lon="-114.014720">
        <ele>1062.398</ele>
        <time>2018-12-29T20:01:16Z</time>
      </trkpt>
      <trkpt lat="35.212840" lon="-114.014960">
        <ele>1062.517</ele>
        <time>2018-12-29T20:01:36Z</time>
      </trkpt>
      <trkpt lat="35.211640" lon="-114.015960">
        <ele>1064.108</ele>
        <time>2018-12-29T20:01:56Z</time>
      </trkpt>
      <trkpt lat="35.211220" lon="-114.016310">
        <ele>1064.364</ele>
        <time>2018-12-29T20:02:16Z</time>
      </trkpt>
      <trkpt lat="35.210410" lon="-114.017000">
        <ele>1064.662</ele>
        <time>2018-12-29T20:02:36Z</time>
      </trkpt>
      <trkpt lat="35.209110" lon="-114.018100">
        <ele>1064.667</ele>
        <time>2018-12-29T20:02:56Z</time>
      </trkpt>
      <trkpt lat="35.208360" lon="-114.018740">
        <ele>1065.198</ele>
        <time>2018-12-29T20:03:16Z</time>
      </trkpt>
      <trkpt lat="35.207640" lon="-114.019350">
        <ele>1065.513</ele>
        <time>2018-12-29T20:03:36Z</time>
      </trkpt>
      <trkpt lat="35.207500" lon="-114.019460">
        <ele>1065.513</ele>
        <time>2018-12-29T20:03:56Z</time>
      </trkpt>
      <trkpt lat="35.207490" lon="-114.019470">
        <ele>1065.565</ele>
        <time>2018-12-29T20:04:16Z</time>
      </trkpt>
      <trkpt lat="35.207220" lon="-114.019690">
        <ele>1065.599</ele>
        <time>2018-12-29T20:04:36Z</time>
      </trkpt>
      <trkpt lat="35.207180" lon="-114.019730">
        <ele>1065.532</ele>
        <time>2018-12-29T20:04:56Z</time>
      </trkpt>
      <trkpt lat="35.206420" lon="-114.020370">
        <ele>1065.692</ele>
        <time>2018-12-29T20:05:16Z</time>
      </trkpt>
      <trkpt lat="35.206000" lon="-114.020720">
        <ele>1065.811</ele>
        <time>2018-12-29T20:05:36Z</time>
      </trkpt>
      <trkpt lat="35.205240" lon="-114.021370">
        <ele>1066.008</ele>
        <time>2018-12-29T20:05:56Z</time>
      </trkpt>
      <trkpt lat="35.205080" lon="-114.021500">
        <ele>1066.046</ele>
        <time>2018-12-29T20:06:16Z</time>
      </trkpt>
      <trkpt lat="35.204510" lon="-114.021990">
        <ele>1066.284</ele>
        <time>2018-12-29T20:06:36Z</time>
      </trkpt>
      <trkpt lat="35.204230" lon="-114.022220">
        <ele>1066.389</ele>
        <time>2018-12-29T20:06:56Z</time>
      </trkpt>
      <trkpt lat="35.202560" lon="-114.023640">
        <ele>1066.880</ele>
        <time>2018-12-29T20:07:16Z</time>
      </trkpt>
      <trkpt lat="35.202290" lon="-114.023860">
        <ele>1066.825</ele>
        <time>2018-12-29T20:07:36Z</time>
      </trkpt>
      <trkpt lat="35.202020" lon="-114.024090">
        <ele>1066.995</ele>
        <time>2018-12-29T20:07:56Z</time>
      </trkpt>
      <trkpt lat="35.201750" lon="-114.024320">
        <ele>1066.947</ele>
        <time>2018-12-29T20:08:16Z</time>
      </trkpt>
      <trkpt lat="35.201470" lon="-114.024540">
        <ele>1067.191</ele>
        <time>2018-12-29T20:08:36Z</time>
      </trkpt>
      <trkpt lat="35.201190" lon="-114.024780">
        <ele>1067.329</ele>
        <time>2018-12-29T20:08:56Z</time>
      </trkpt>
      <trkpt lat="35.201000" lon="-114.024940">
        <ele>1067.600</ele>
        <time>2018-12-29T20:09:16Z</time>
      </trkpt>
      <trkpt lat="35.200910" lon="-114.025020">
        <ele>1067.720</ele>
        <time>2018-12-29T20:09:36Z</time>
      </trkpt>
      <trkpt lat="35.200630" lon="-114.025260">
        <ele>1067.808</ele>
        <time>2018-12-29T20:09:56Z</time>
      </trkpt>
      <trkpt lat="35.200340" lon="-114.025500">
        <ele>1067.835</ele>
        <time>2018-12-29T20:10:16Z</time>
      </trkpt>
      <trkpt lat="35.200090" lon="-114.025720">
        <ele>1067.643</ele>
        <time>2018-12-29T20:10:36Z</time>
      </trkpt>
      <trkpt lat="35.199760" lon="-114.026000">
        <ele>1067.198</ele>
        <time>2018-12-29T20:10:56Z</time>
      </trkpt>
      <trkpt lat="35.199480" lon="-114.026260">
        <ele>1066.839</ele>
        <time>2018-12-29T20:11:16Z</time>
      </trkpt>
      <trkpt lat="35.199270" lon="-114.026460">
        <ele>1066.634</ele>
        <time>2018-12-29T20:11:36Z</time>
      </trkpt>
      <trkpt lat="35.199150" lon="-114.026580">
        <ele>1066.534</ele>
        <time>2018-12-29T20:11:56Z</time>
      </trkpt>
      <trkpt lat="35.199040" lon="-114.026690">
        <ele>1066.566</ele>
        <time>2018-12-29T20:12:16Z</time>
      </trkpt>
      <trkpt lat="35.198740" lon="-114.026990">
        <ele>1066.770</ele>
        <time>2018-12-29T20:12:36Z</time>
      </trkpt>
      <trkpt lat="35.198560" lon="-114.027190">
        <ele>1066.889</ele>
        <time>2018-12-29T20:12:56Z</time>
      </trkpt>
      <trkpt lat="35.198460" lon="-114.027290">
        <ele>1066.906</ele>
        <time>2018-12-29T20:13:16Z</time>
      </trkpt>
      <trkpt lat="35.198370" lon="-114.027390">
        <ele>1067.026</ele>
        <time>2018-12-29T20:13:36Z</time>
      </trkpt>
      <trkpt lat="35.198240" lon="-114.027530">
        <ele>1067.208</ele>
        <time>2018-12-29T20:13:56Z</time>
      </trkpt>
      <trkpt lat="35.198120" lon="-114.027680">
        <ele>1067.371</ele>
        <time>2018-12-29T20:14:16Z</time>
      </trkpt>
      <trkpt lat="35.197990" lon="-114.027830">
        <ele>1067.429</ele>
        <time>2018-12-29T20:14:36Z</time>
      </trkpt>
      <trkpt lat="35.197860" lon="-114.027980">
        <ele>1067.554</ele>
        <time>2018-12-29T20:14:56Z</time>
      </trkpt>
      <trkpt lat="35.197750" lon="-114.028120">
        <ele>1067.785</ele>
        <time>2018-12-29T20:15:16Z</time>
      </trkpt>
      <trkpt lat="35.197620" lon="-114.028290">
        <ele>1067.740</ele>
        <time>2018-12-29T20:15:36Z</time>
      </trkpt>
      <trkpt lat="35.197440" lon="-114.028520">
        <ele>1067.870</ele>
        <time>2018-12-29T20:15:56Z</time>
      </trkpt>
      <trkpt lat="35.197270" lon="-114.028740">
        <ele>1067.742</ele>
        <time>2018-12-29T20:16:16Z</time>
      </trkpt>
      <trkpt lat="35.197070" lon="-114.028990">
        <ele>1067.886</ele>
        <time>2018-12-29T20:16:36Z</time>
      </trkpt>
      <trkpt lat="35.196870" lon="-114.029240">
        <ele>1068.428</ele>
        <time>2018-12-29T20:16:56Z</time>
      </trkpt>
      <trkpt lat="35.196670" lon="-114.029490">
        <ele>1069.889</ele>
        <time>2018-12-29T20:17:16Z</time>
      </trkpt>
      <trkpt lat="35.196550" lon="-114.029650">
        <ele>1070.517</ele>
        <time>2018-12-29T20:17:36Z</time>
      </trkpt>
      <trkpt lat="35.196420" lon="-114.029820">
        <ele>1071.008</ele>
        <time>2018-12-29T20:17:56Z</time>
      </trkpt>
      <trkpt lat="35.196270" lon="-114.030010">
        <ele>1071.265</ele>
        <time>2018-12-29T20:18:16Z</time>
      </trkpt>
      <trkpt lat="35.196120" lon="-114.030200">
        <ele>1071.053</ele>
        <time>2018-12-29T20:18:36Z</time>
      </trkpt>
      <trkpt lat="35.195940" lon="-114.030430">
        <ele>1070.848</ele>
        <time>2018-12-29T20:18:56Z</time>
      </trkpt>
      <trkpt lat="35.195770" lon="-114.030650">
        <ele>1070.959</ele>
        <time>2018-12-29T20:19:16Z</time>
      </trkpt>
      <trkpt lat="35.195480" lon="-114.031020">
        <ele>1071.224</ele>
        <time>2018-12-29T20:19:36Z</time>
      </trkpt>
      <trkpt lat="35.195200" lon="-114.031380">
        <ele>1072.064</ele>
        <time>2018-12-29T20:19:56Z</time>
      </trkpt>
      <trkpt lat="35.195090" lon="-114.031530">
        <ele>1072.386</ele>
        <time>2018-12-29T20:20:16Z</time>
      </trkpt>
      <trkpt lat="35.194990" lon="-114.031660">
        <ele>1072.720</ele>
        <time>2018-12-29T20:20:36Z</time>
      </trkpt>
      <trkpt lat="35.194910" lon="-114.031750">
        <ele>1073.047</ele>
        <time>2018-12-29T20:20:56Z</time>
      </trkpt>
      <trkpt lat="35.194620" lon="-114.032120">
        <ele>1074.329</ele>
        <time>2018-12-29T20:21:16Z</time>
      </trkpt>
      <trkpt lat="35.194270" lon="-114.032570">
        <ele>1075.521</ele>
        <time>2018-12-29T20:21:36Z</time>
      </trkpt>
      <trkpt lat="35.194170" lon="-114.032700">
        <ele>1075.708</ele>
        <time>2018-12-29T20:21:56Z</time>
      </trkpt>
      <trkpt lat="35.194100" lon="-114.032790">
        <ele>1075.957</ele>
        <time>2018-12-29T20:22:16Z</time>
      </trkpt>
      <trkpt lat="35.193990" lon="-114.032930">
        <ele>1076.115</ele>
        <time>2018-12-29T20:22:36Z</time>
      </trkpt>
      <trkpt lat="35.193920" lon="-114.033020">
        <ele>1076.230</ele>
        <time>2018-12-29T20:22:56Z</time>
      </trkpt>
      <trkpt lat="35.193760" lon="-114.033200">
        <ele>1076.641</ele>
        <time>2018-12-29T20:23:16Z</time>
      </trkpt>
      <trkpt lat="35.193630" lon="-114.033350">
        <ele>1077.086</ele>
        <time>2018-12-29T20:23:36Z</time>
      </trkpt>
      <trkpt lat="35.193520" lon="-114.033470">
        <ele>1077.346</ele>
        <time>2018-12-29T20:23:56Z</time>
      </trkpt>
      <trkpt lat="35.193460" lon="-114.033520">
        <ele>1077.518</ele>
        <time>2018-12-29T20:24:16Z</time>
      </trkpt>
      <trkpt lat="35.193350" lon="-114.033600">
        <ele>1077.222</ele>
        <time>2018-12-29T20:24:36Z</time>
      </trkpt>
      <trkpt lat="35.193300" lon="-114.033650">
        <ele>1077.215</ele>
        <time>2018-12-29T20:24:56Z</time>
      </trkpt>
      <trkpt lat="35.193240" lon="-114.033700">
        <ele>1077.265</ele>
        <time>2018-12-29T20:25:16Z</time>
      </trkpt>
      <trkpt lat="35.193100" lon="-114.033800">
        <ele>1076.711</ele>
        <time>2018-12-29T20:25:36Z</time>
      </trkpt>
      <trkpt lat="35.192950" lon="-114.033900">
        <ele>1076.008</ele>
        <time>2018-12-29T20:25:56Z</time>
      </trkpt>
      <trkpt lat="35.192730" lon="-114.034010">
        <ele>1075.584</ele>
        <time>2018-12-29T20:26:16Z</time>
      </trkpt>
      <trkpt lat="35.192470" lon="-114.034140">
        <ele>1075.592</ele>
        <time>2018-12-29T20:26:36Z</time>
      </trkpt>
      <trkpt lat="35.192220" lon="-114.034260">
        <ele>1076.787</ele>
        <time>2018-12-29T20:26:56Z</time>
      </trkpt>
      <trkpt lat="35.191790" lon="-114.034460">
        <ele>1077.668</ele>
        <time>2018-12-29T20:27:16Z</time>
      </trkpt>
      <trkpt lat="35.191600" lon="-114.034550">
        <ele>1078.423</ele>
        <time>2018-12-29T20:27:36Z</time>
      </trkpt>
      <trkpt lat="35.191370" lon="-114.034670">
        <ele>1078.823</ele>
        <time>2018-12-29T20:27:56Z</time>
      </trkpt>
      <trkpt lat="35.191310" lon="-114.034710">
        <ele>1078.835</ele>
        <time>2018-12-29T20:28:16Z</time>
      </trkpt>
      <trkpt lat="35.191130" lon="-114.034820">
        <ele>1078.369</ele>
        <time>2018-12-29T20:28:36Z</time>
      </trkpt>
      <trkpt lat="35.190950" lon="-114.034940">
        <ele>1077.544</ele>
        <time>2018-12-29T20:28:56Z</time>
      </trkpt>
      <trkpt lat="35.190780" lon="-114.035070">
        <ele>1077.105</ele>
        <time>2018-12-29T20:29:16Z</time>
      </trkpt>
      <trkpt lat="35.190730" lon="-114.035100">
        <ele>1076.915</ele>
        <time>2018-12-29T20:29:36Z</time>
      </trkpt>
      <trkpt lat="35.190470" lon="-114.035310">
        <ele>1076.508</ele>
        <time>2018-12-29T20:29:56Z</time>
      </trkpt>
      <trkpt lat="35.190270" lon="-114.035490">
        <ele>1076.067</ele>
        <time>2018-12-29T20:30:16Z</time>
      </trkpt>
      <trkpt lat="35.190090" lon="-114.035650">
        <ele>1074.425</ele>
        <time>2018-12-29T20:30:36Z</time>
      </trkpt>
      <trkpt lat="35.189950" lon="-114.035800">
        <ele>1073.650</ele>
        <time>2018-12-29T20:30:56Z</time>
      </trkpt>
      <trkpt lat="35.189790" lon="-114.035970">
        <ele>1073.711</ele>
        <time>2018-12-29T20:31:16Z</time>
      </trkpt>
      <trkpt lat="35.189560" lon="-114.036240">
        <ele>1073.726</ele>
        <time>2018-12-29T20:31:36Z</time>
      </trkpt>
      <trkpt lat="35.189300" lon="-114.036560">
        <ele>1073.296</ele>
        <time>2018-12-29T20:31:56Z</time>
      </trkpt>
      <trkpt lat="35.189100" lon="-114.036800">
        <ele>1069.168</ele>
        <time>2018-12-29T20:32:16Z</time>
      </trkpt>
      <trkpt lat="35.188910" lon="-114.037020">
        <ele>1067.632</ele>
        <time>2018-12-29T20:32:36Z</time>
      </trkpt>
      <trkpt lat="35.188510" lon="-114.037510">
        <ele>1061.718</ele>
        <time>2018-12-29T20:32:56Z</time>
      </trkpt>
      <trkpt lat="35.188280" lon="-114.037810">
        <ele>1060.398</ele>
        <time>2018-12-29T20:33:16Z</time>
      </trkpt>
      <trkpt lat="35.187870" lon="-114.038290">
        <ele>1054.017</ele>
        <time>2018-12-29T20:33:36Z</time>
      </trkpt>
      <trkpt lat="35.187690" lon="-114.038500">
        <ele>1052.708</ele>
        <time>2018-12-29T20:33:56Z</time>
      </trkpt>
      <trkpt lat="35.187570" lon="-114.038660">
        <ele>1051.584</ele>
        <time>2018-12-29T20:34:16Z</time>
      </trkpt>
      <trkpt lat="35.187410" lon="-114.038890">
        <ele>1050.272</ele>
        <time>2018-12-29T20:34:36Z</time>
      </trkpt>
      <trkpt lat="35.187270" lon="-114.039090">
        <ele>1048.587</ele>
        <time>2018-12-29T20:34:56Z</time>
      </trkpt>
      <trkpt lat="35.187190" lon="-114.039220">
        <ele>1046.338</ele>
        <time>2018-12-29T20:35:16Z</time>
      </trkpt>
      <trkpt lat="35.187120" lon="-114.039330">
        <ele>1045.673</ele>
        <time>2018-12-29T20:35:36Z</time>
      </trkpt>
      <trkpt lat="35.187060" lon="-114.039480">
        <ele>1045.183</ele>
        <time>2018-12-29T20:35:56Z</time>
      </trkpt>
      <trkpt lat="35.187020" lon="-114.039550">
        <ele>1044.545</ele>
        <time>2018-12-29T20:36:16Z</time>
      </trkpt>
      <trkpt lat="35.186960" lon="-114.039690">
        <ele>1044.339</ele>
        <time>2018-12-29T20:36:36Z</time>
      </trkpt>
      <trkpt lat="35.186890" lon="-114.039830">
        <ele>1044.335</ele>
        <time>2018-12-29T20:36:56Z</time>
      </trkpt>
      <trkpt lat="35.186830" lon="-114.040000">
        <ele>1043.286</ele>
        <time>2018-12-29T20:37:16Z</time>
      </trkpt>
      <trkpt lat="35.186710" lon="-114.040330">
        <ele>1039.814</ele>
        <time>2018-12-29T20:37:36Z</time>
      </trkpt>
      <trkpt lat="35.186660" lon="-114.040490">
        <ele>1039.008</ele>
        <time>2018-12-29T20:37:56Z</time>
      </trkpt>
      <trkpt lat="35.186620" lon="-114.040690">
        <ele>1038.656</ele>
        <time>2018-12-29T20:38:16Z</time>
      </trkpt>
      <trkpt lat="35.186550" lon="-114.041010">
        <ele>1038.014</ele>
        <time>2018-12-29T20:38:36Z</time>
      </trkpt>
      <trkpt lat="35.186510" lon="-114.041330">
        <ele>1036.759</ele>
        <time>2018-12-29T20:38:56Z</time>
      </trkpt>
      <trkpt lat="35.186500" lon="-114.041470">
        <ele>1036.150</ele>
        <time>2018-12-29T20:39:16Z</time>
      </trkpt>
      <trkpt lat="35.186480" lon="-114.041620">
        <ele>1035.595</ele>
        <time>2018-12-29T20:39:36Z</time>
      </trkpt>
      <trkpt lat="35.186470" lon="-114.041870">
        <ele>1034.755</ele>
        <time>2018-12-29T20:39:56Z</time>
      </trkpt>
      <trkpt lat="35.186480" lon="-114.042210">
        <ele>1033.427</ele>
        <time>2018-12-29T20:40:16Z</time>
      </trkpt>
      <trkpt lat="35.186500" lon="-114.042490">
        <ele>1032.671</ele>
        <time>2018-12-29T20:40:36Z</time>
      </trkpt>
      <trkpt lat="35.186530" lon="-114.042750">
        <ele>1032.322</ele>
        <time>2018-12-29T20:40:56Z</time>
      </trkpt>
      <trkpt lat="35.186570" lon="-114.043000">
        <ele>1032.162</ele>
        <time>2018-12-29T20:41:16Z</time>
      </trkpt>
      <trkpt lat="35.186630" lon="-114.043300">
        <ele>1031.808</ele>
        <time>2018-12-29T20:41:36Z</time>
      </trkpt>
      <trkpt lat="35.186720" lon="-114.043670">
        <ele>1030.708</ele>
        <time>2018-12-29T20:41:56Z</time>
      </trkpt>
      <trkpt lat="35.186750" lon="-114.043790">
        <ele>1030.455</ele>
        <time>2018-12-29T20:42:16Z</time>
      </trkpt>
      <trkpt lat="35.186780" lon="-114.043910">
        <ele>1030.283</ele>
        <time>2018-12-29T20:42:36Z</time>
      </trkpt>
      <trkpt lat="35.186820" lon="-114.044070">
        <ele>1030.058</ele>
        <time>2018-12-29T20:42:56Z</time>
      </trkpt>
      <trkpt lat="35.186850" lon="-114.044150">
        <ele>1029.969</ele>
        <time>2018-12-29T20:43:16Z</time>
      </trkpt>
      <trkpt lat="35.186870" lon="-114.044240">
        <ele>1029.884</ele>
        <time>2018-12-29T20:43:36Z</time>
      </trkpt>
      <trkpt lat="35.186890" lon="-114.044330">
        <ele>1029.664</ele>
        <time>2018-12-29T20:43:56Z</time>
      </trkpt>
      <trkpt lat="35.186920" lon="-114.044420">
        <ele>1029.546</ele>
        <time>2018-12-29T20:44:16Z</time>
      </trkpt>
      <trkpt lat="35.186960" lon="-114.044580">
        <ele>1029.350</ele>
        <time>2018-12-29T20:44:36Z</time>
      </trkpt>
      <trkpt lat="35.186980" lon="-114.044670">
        <ele>1029.144</ele>
        <time>2018-12-29T20:44:56Z</time>
      </trkpt>
      <trkpt lat="35.187000" lon="-114.044760">
        <ele>1028.905</ele>
        <time>2018-12-29T20:45:16Z</time>
      </trkpt>
      <trkpt lat="35.187040" lon="-114.044900">
        <ele>1028.715</ele>
        <time>2018-12-29T20:45:36Z</time>
      </trkpt>
      <trkpt lat="35.187070" lon="-114.045050">
        <ele>1028.408</ele>
        <time>2018-12-29T20:45:56Z</time>
      </trkpt>
      <trkpt lat="35.187110" lon="-114.045210">
        <ele>1028.387</ele>
        <time>2018-12-29T20:46:16Z</time>
      </trkpt>
      <trkpt lat="35.187150" lon="-114.045360">
        <ele>1028.155</ele>
        <time>2018-12-29T20:46:36Z</time>
      </trkpt>
      <trkpt lat="35.187180" lon="-114.045510">
        <ele>1028.040</ele>
        <time>2018-12-29T20:46:56Z</time>
      </trkpt>
      <trkpt lat="35.187220" lon="-114.045660">
        <ele>1027.991</ele>
        <time>2018-12-29T20:47:16Z</time>
      </trkpt>
      <trkpt lat="35.187260" lon="-114.045810">
        <ele>1027.826</ele>
        <time>2018-12-29T20:47:36Z</time>
      </trkpt>
      <trkpt lat="35.187310" lon="-114.046030">
        <ele>1027.866</ele>
        <time>2018-12-29T20:47:56Z</time>
      </trkpt>
      <trkpt lat="35.187340" lon="-114.046140">
        <ele>1027.878</ele>
        <time>2018-12-29T20:48:16Z</time>
      </trkpt>
      <trkpt lat="35.187370" lon="-114.046250">
        <ele>1027.822</ele>
        <time>2018-12-29T20:48:36Z</time>
      </trkpt>
      <trkpt lat="35.187420" lon="-114.046470">
        <ele>1027.816</ele>
        <time>2018-12-29T20:48:56Z</time>
      </trkpt>
      <trkpt lat="35.187450" lon="-114.046580">
        <ele>1027.776</ele>
        <time>2018-12-29T20:49:16Z</time>
      </trkpt>
      <trkpt lat="35.187480" lon="-114.046690">
        <ele>1027.613</ele>
        <time>2018-12-29T20:49:36Z</time>
      </trkpt>
      <trkpt lat="35.187530" lon="-114.046890">
        <ele>1027.408</ele>
        <time>2018-12-29T20:49:56Z</time>
      </trkpt>
      <trkpt lat="35.187550" lon="-114.046990">
        <ele>1027.214</ele>
        <time>2018-12-29T20:50:16Z</time>
      </trkpt>
      <trkpt lat="35.187560" lon="-114.047030">
        <ele>1027.272</ele>
        <time>2018-12-29T20:50:36Z</time>
      </trkpt>
      <trkpt lat="35.187580" lon="-114.047090">
        <ele>1027.167</ele>
        <time>2018-12-29T20:50:56Z</time>
      </trkpt>
      <trkpt lat="35.187630" lon="-114.047280">
        <ele>1026.778</ele>
        <time>2018-12-29T20:51:16Z</time>
      </trkpt>
      <trkpt lat="35.187680" lon="-114.047480">
        <ele>1026.393</ele>
        <time>2018-12-29T20:51:36Z</time>
      </trkpt>
      <trkpt lat="35.187720" lon="-114.047640">
        <ele>1025.963</ele>
        <time>2018-12-29T20:51:56Z</time>
      </trkpt>
      <trkpt lat="35.187750" lon="-114.047810">
        <ele>1025.555</ele>
        <time>2018-12-29T20:52:16Z</time>
      </trkpt>
      <trkpt lat="35.187790" lon="-114.047970">
        <ele>1025.069</ele>
        <time>2018-12-29T20:52:36Z</time>
      </trkpt>
      <trkpt lat="35.187830" lon="-114.048130">
        <ele>1024.433</ele>
        <time>2018-12-29T20:52:56Z</time>
      </trkpt>
      <trkpt lat="35.187910" lon="-114.048460">
        <ele>1023.323</ele>
        <time>2018-12-29T20:53:16Z</time>
      </trkpt>
      <trkpt lat="35.187950" lon="-114.048620">
        <ele>1022.815</ele>
        <time>2018-12-29T20:53:36Z</time>
      </trkpt>
      <trkpt lat="35.187990" lon="-114.048780">
        <ele>1022.308</ele>
        <time>2018-12-29T20:53:56Z</time>
      </trkpt>
      <trkpt lat="35.188030" lon="-114.048980">
        <ele>1021.856</ele>
        <time>2018-12-29T20:54:16Z</time>
      </trkpt>
      <trkpt lat="35.188070" lon="-114.049180">
        <ele>1021.454</ele>
        <time>2018-12-29T20:54:36Z</time>
      </trkpt>
      <trkpt lat="35.188090" lon="-114.049310">
        <ele>1021.219</ele>
        <time>2018-12-29T20:54:56Z</time>
      </trkpt>
      <trkpt lat="35.188120" lon="-114.049450">
        <ele>1021.080</ele>
        <time>2018-12-29T20:55:16Z</time>
      </trkpt>
      <trkpt lat="35.188180" lon="-114.049770">
        <ele>1020.835</ele>
        <time>2018-12-29T20:55:36Z</time>
      </trkpt>
      <trkpt lat="35.188200" lon="-114.049870">
        <ele>1020.715</ele>
        <time>2018-12-29T20:55:56Z</time>
      </trkpt>
      <trkpt lat="35.188240" lon="-114.049930">
        <ele>1020.637</ele>
        <time>2018-12-29T20:56:16Z</time>
      </trkpt>
      <trkpt lat="35.188260" lon="-114.049980">
        <ele>1020.651</ele>
        <time>2018-12-29T20:56:36Z</time>
      </trkpt>
      <trkpt lat="35.188270" lon="-114.050030">
        <ele>1020.555</ele>
        <time>2018-12-29T20:56:56Z</time>
      </trkpt>
      <trkpt lat="35.188290" lon="-114.050150">
        <ele>1020.407</ele>
        <time>2018-12-29T20:57:16Z</time>
      </trkpt>
      <trkpt lat="35.188310" lon="-114.050260">
        <ele>1020.217</ele>
        <time>2018-12-29T20:57:36Z</time>
      </trkpt>
      <trkpt lat="35.188350" lon="-114.050490">
        <ele>1019.908</ele>
        <time>2018-12-29T20:57:56Z</time>
      </trkpt>
      <trkpt lat="35.188380" lon="-114.050720">
        <ele>1019.758</ele>
        <time>2018-12-29T20:58:16Z</time>
      </trkpt>
      <trkpt lat="35.188380" lon="-114.050730">
        <ele>1019.766</ele>
        <time>2018-12-29T20:58:36Z</time>
      </trkpt>
      <trkpt lat="35.188420" lon="-114.050950">
        <ele>1019.711</ele>
        <time>2018-12-29T20:58:56Z</time>
      </trkpt>
      <trkpt lat="35.188450" lon="-114.051180">
        <ele>1019.752</ele>
        <time>2018-12-29T20:59:16Z</time>
      </trkpt>
      <trkpt lat="35.188470" lon="-114.051320">
        <ele>1019.747</ele>
        <time>2018-12-29T20:59:36Z</time>
      </trkpt>
      <trkpt lat="35.188490" lon="-114.051470">
        <ele>1019.737</ele>
        <time>2018-12-29T20:59:56Z</time>
      </trkpt>
      <trkpt lat="35.188540" lon="-114.051970">
        <ele>1019.219</ele>
        <time>2018-12-29T21:00:16Z</time>
      </trkpt>
      <trkpt lat="35.188570" lon="-114.052270">
        <ele>1018.873</ele>
        <time>2018-12-29T21:00:36Z</time>
      </trkpt>
      <trkpt lat="35.188600" lon="-114.052570">
        <ele>1018.635</ele>
        <time>2018-12-29T21:00:56Z</time>
      </trkpt>
      <trkpt lat="35.188620" lon="-114.052820">
        <ele>1018.686</ele>
        <time>2018-12-29T21:01:16Z</time>
      </trkpt>
      <trkpt lat="35.188650" lon="-114.053070">
        <ele>1018.614</ele>
        <time>2018-12-29T21:01:36Z</time>
      </trkpt>
      <trkpt lat="35.188648" lon="-114.053074">
        <ele>1018.608</ele>
        <time>2018-12-29T21:01:56Z</time>
      </trkpt>
      <trkpt lat="35.188900" lon="-114.053040">
        <ele>1019.496</ele>
        <time>2018-12-29T21:02:16Z</time>
      </trkpt>
      <trkpt lat="35.189150" lon="-114.053010">
        <ele>1020.334</ele>
        <time>2018-12-29T21:02:36Z</time>
      </trkpt>
      <trkpt lat="35.189410" lon="-114.052980">
        <ele>1021.279</ele>
        <time>2018-12-29T21:02:56Z</time>
      </trkpt>
      <trkpt lat="35.189440" lon="-114.052970">
        <ele>1021.420</ele>
        <time>2018-12-29T21:03:16Z</time>
      </trkpt>
      <trkpt lat="35.189440" lon="-114.052972">
        <ele>1021.475</ele>
        <time>2018-12-29T21:03:36Z</time>
      </trkpt>
      <trkpt lat="35.189440" lon="-114.052972">
        <ele>1021.456</ele>
        <time>2018-12-27T19:11:53Z</time>
      </trkpt>
      <trkpt lat="35.189410" lon="-114.052980">
        <ele>1021.259</ele>
        <time>2018-12-27T19:12:13Z</time>
      </trkpt>
      <trkpt lat="35.189150" lon="-114.053010">
        <ele>1020.314</ele>
        <time>2018-12-27T19:12:33Z</time>
      </trkpt>
      <trkpt lat="35.188900" lon="-114.053040">
        <ele>1019.408</ele>
        <time>2018-12-27T19:12:53Z</time>
      </trkpt>
      <trkpt lat="35.188650" lon="-114.053070">
        <ele>1018.678</ele>
        <time>2018-12-27T19:13:13Z</time>
      </trkpt>
      <trkpt lat="35.188648" lon="-114.053074">
        <ele>1018.646</ele>
        <time>2018-12-27T19:13:33Z</time>
      </trkpt>
      <trkpt lat="35.188670" lon="-114.053290">
        <ele>1018.681</ele>
        <time>2018-12-27T19:13:53Z</time>
      </trkpt>
      <trkpt lat="35.188690" lon="-114.053510">
        <ele>1018.562</ele>
        <time>2018-12-27T19:14:13Z</time>
      </trkpt>
      <trkpt lat="35.188700" lon="-114.053630">
        <ele>1018.597</ele>
        <time>2018-12-27T19:14:33Z</time>
      </trkpt>
      <trkpt lat="35.188710" lon="-114.053740">
        <ele>1018.428</ele>
        <time>2018-12-27T19:14:53Z</time>
      </trkpt>
      <trkpt lat="35.188710" lon="-114.053760">
        <ele>1018.461</ele>
        <time>2018-12-27T19:15:13Z</time>
      </trkpt>
      <trkpt lat="35.188700" lon="-114.053780">
        <ele>1018.361</ele>
        <time>2018-12-27T19:15:33Z</time>
      </trkpt>
      <trkpt lat="35.188680" lon="-114.053900">
        <ele>1018.259</ele>
        <time>2018-12-27T19:15:53Z</time>
      </trkpt>
      <trkpt lat="35.188690" lon="-114.054030">
        <ele>1018.103</ele>
        <time>2018-12-27T19:16:13Z</time>
      </trkpt>
      <trkpt lat="35.188700" lon="-114.054150">
        <ele>1018.023</ele>
        <time>2018-12-27T19:16:33Z</time>
      </trkpt>
      <trkpt lat="35.188700" lon="-114.054230">
        <ele>1017.908</ele>
        <time>2018-12-27T19:16:53Z</time>
      </trkpt>
      <trkpt lat="35.188710" lon="-114.054310">
        <ele>1017.988</ele>
        <time>2018-12-27T19:17:13Z</time>
      </trkpt>
      <trkpt lat="35.188730" lon="-114.054330">
        <ele>1017.936</ele>
        <time>2018-12-27T19:17:33Z</time>
      </trkpt>
      <trkpt lat="35.188750" lon="-114.054360">
        <ele>1017.911</ele>
        <time>2018-12-27T19:17:53Z</time>
      </trkpt>
      <trkpt lat="35.188770" lon="-114.054410">
        <ele>1017.912</ele>
        <time>2018-12-27T19:18:13Z</time>
      </trkpt>
      <trkpt lat="35.188780" lon="-114.054530">
        <ele>1017.787</ele>
        <time>2018-12-27T19:18:33Z</time>
      </trkpt>
      <trkpt lat="35.188790" lon="-114.054640">
        <ele>1017.688</ele>
        <time>2018-12-27T19:18:53Z</time>
      </trkpt>
      <trkpt lat="35.188810" lon="-114.054920">
        <ele>1017.591</ele>
        <time>2018-12-27T19:19:13Z</time>
      </trkpt>
      <trkpt lat="35.188840" lon="-114.055210">
        <ele>1017.381</ele>
        <time>2018-12-27T19:19:33Z</time>
      </trkpt>
      <trkpt lat="35.188860" lon="-114.055470">
        <ele>1017.163</ele>
        <time>2018-12-27T19:19:53Z</time>
      </trkpt>
      <trkpt lat="35.188890" lon="-114.055780">
        <ele>1016.944</ele>
        <time>2018-12-27T19:20:13Z</time>
      </trkpt>
      <trkpt lat="35.188910" lon="-114.056020">
        <ele>1016.718</ele>
        <time>2018-12-27T19:20:33Z</time>
      </trkpt>
      <trkpt lat="35.188940" lon="-114.056260">
        <ele>1016.408</ele>
        <time>2018-12-27T19:20:53Z</time>
      </trkpt>
      <trkpt lat="35.188960" lon="-114.056470">
        <ele>1016.389</ele>
        <time>2018-12-27T19:21:13Z</time>
      </trkpt>
      <trkpt lat="35.188980" lon="-114.056670">
        <ele>1016.167</ele>
        <time>2018-12-27T19:21:33Z</time>
      </trkpt>
      <trkpt lat="35.188990" lon="-114.056830">
        <ele>1016.082</ele>
        <time>2018-12-27T19:21:53Z</time>
      </trkpt>
      <trkpt lat="35.189000" lon="-114.056960">
        <ele>1015.923</ele>
        <time>2018-12-27T19:22:13Z</time>
      </trkpt>
      <trkpt lat="35.189020" lon="-114.057090">
        <ele>1015.888</ele>
        <time>2018-12-27T19:22:33Z</time>
      </trkpt>
      <trkpt lat="35.189040" lon="-114.057200">
        <ele>1015.759</ele>
        <time>2018-12-27T19:22:53Z</time>
      </trkpt>
      <trkpt lat="35.189050" lon="-114.057240">
        <ele>1015.612</ele>
        <time>2018-12-27T19:23:13Z</time>
      </trkpt>
      <trkpt lat="35.189060" lon="-114.057260">
        <ele>1015.642</ele>
        <time>2018-12-27T19:23:33Z</time>
      </trkpt>
      <trkpt lat="35.189090" lon="-114.057350">
        <ele>1015.594</ele>
        <time>2018-12-27T19:23:53Z</time>
      </trkpt>
      <trkpt lat="35.189130" lon="-114.057470">
        <ele>1015.457</ele>
        <time>2018-12-27T19:24:13Z</time>
      </trkpt>
      <trkpt lat="35.189180" lon="-114.057570">
        <ele>1015.422</ele>
        <time>2018-12-27T19:24:33Z</time>
      </trkpt>
      <trkpt lat="35.189240" lon="-114.057690">
        <ele>1015.308</ele>
        <time>2018-12-27T19:24:53Z</time>
      </trkpt>
      <trkpt lat="35.189300" lon="-114.057810">
        <ele>1015.242</ele>
        <time>2018-12-27T19:25:13Z</time>
      </trkpt>
      <trkpt lat="35.189410" lon="-114.058000">
        <ele>1015.180</ele>
        <time>2018-12-27T19:25:33Z</time>
      </trkpt>
      <trkpt lat="35.189470" lon="-114.058130">
        <ele>1015.145</ele>
        <time>2018-12-27T19:25:53Z</time>
      </trkpt>
      <trkpt lat="35.189530" lon="-114.058270">
        <ele>1015.116</ele>
        <time>2018-12-27T19:26:13Z</time>
      </trkpt>
      <trkpt lat="35.189570" lon="-114.058370">
        <ele>1015.141</ele>
        <time>2018-12-27T19:26:33Z</time>
      </trkpt>
      <trkpt lat="35.189620" lon="-114.058520">
        <ele>1015.172</ele>
        <time>2018-12-27T19:26:53Z</time>
      </trkpt>
      <trkpt lat="35.189650" lon="-114.058610">
        <ele>1015.045</ele>
        <time>2018-12-27T19:27:13Z</time>
      </trkpt>
      <trkpt lat="35.189680" lon="-114.058760">
        <ele>1015.035</ele>
        <time>2018-12-27T19:27:33Z</time>
      </trkpt>
      <trkpt lat="35.189710" lon="-114.058900">
        <ele>1015.094</ele>
        <time>2018-12-27T19:27:53Z</time>
      </trkpt>
      <trkpt lat="35.189750" lon="-114.059090">
        <ele>1015.057</ele>
        <time>2018-12-27T19:28:13Z</time>
      </trkpt>
      <trkpt lat="35.189760" lon="-114.059160">
        <ele>1014.922</ele>
        <time>2018-12-27T19:28:33Z</time>
      </trkpt>
      <trkpt lat="35.189770" lon="-114.059260">
        <ele>1014.908</ele>
        <time>2018-12-27T19:28:53Z</time>
      </trkpt>
      <trkpt lat="35.189780" lon="-114.059410">
        <ele>1014.992</ele>
        <time>2018-12-27T19:29:13Z</time>
      </trkpt>
      <trkpt lat="35.189790" lon="-114.059550">
        <ele>1014.990</ele>
        <time>2018-12-27T19:29:33Z</time>
      </trkpt>
      <trkpt lat="35.189790" lon="-114.059700">
        <ele>1014.925</ele>
        <time>2018-12-27T19:29:53Z</time>
      </trkpt>
      <trkpt lat="35.189790" lon="-114.059880">
        <ele>1014.976</ele>
        <time>2018-12-27T19:30:13Z</time>
      </trkpt>
      <trkpt lat="35.189770" lon="-114.060050">
        <ele>1014.911</ele>
        <time>2018-12-27T19:30:33Z</time>
      </trkpt>
      <trkpt lat="35.189750" lon="-114.060230">
        <ele>1014.742</ele>
        <time>2018-12-27T19:30:53Z</time>
      </trkpt>
      <trkpt lat="35.189710" lon="-114.060310">
        <ele>1014.645</ele>
        <time>2018-12-27T19:31:13Z</time>
      </trkpt>
      <trkpt lat="35.189710" lon="-114.060350">
        <ele>1014.695</ele>
        <time>2018-12-27T19:31:33Z</time>
      </trkpt>
      <trkpt lat="35.189720" lon="-114.060400">
        <ele>1014.625</ele>
        <time>2018-12-27T19:31:53Z</time>
      </trkpt>
      <trkpt lat="35.189730" lon="-114.060470">
        <ele>1014.626</ele>
        <time>2018-12-27T19:32:13Z</time>
      </trkpt>
      <trkpt lat="35.189750" lon="-114.060560">
        <ele>1014.508</ele>
        <time>2018-12-27T19:32:33Z</time>
      </trkpt>
      <trkpt lat="35.189780" lon="-114.060620">
        <ele>1014.608</ele>
        <time>2018-12-27T19:32:53Z</time>
      </trkpt>
      <trkpt lat="35.189800" lon="-114.060670">
        <ele>1014.635</ele>
        <time>2018-12-27T19:33:13Z</time>
      </trkpt>
      <trkpt lat="35.189796" lon="-114.060670">
        <ele>1014.663</ele>
        <time>2018-12-27T19:33:33Z</time>
      </trkpt>
      <trkpt lat="35.189740" lon="-114.060760">
        <ele>1014.418</ele>
        <time>2018-12-27T19:33:53Z</time>
      </trkpt>
      <trkpt lat="35.189710" lon="-114.060810">
        <ele>1014.279</ele>
        <time>2018-12-27T19:34:13Z</time>
      </trkpt>
      <trkpt lat="35.189660" lon="-114.060880">
        <ele>1014.174</ele>
        <time>2018-12-27T19:34:33Z</time>
      </trkpt>
      <trkpt lat="35.189620" lon="-114.060940">
        <ele>1014.045</ele>
        <time>2018-12-27T19:34:53Z</time>
      </trkpt>
      <trkpt lat="35.189570" lon="-114.061030">
        <ele>1013.838</ele>
        <time>2018-12-27T19:35:13Z</time>
      </trkpt>
      <trkpt lat="35.189510" lon="-114.061120">
        <ele>1013.648</ele>
        <time>2018-12-27T19:35:33Z</time>
      </trkpt>
      <trkpt lat="35.189450" lon="-114.061210">
        <ele>1013.449</ele>
        <time>2018-12-27T19:35:53Z</time>
      </trkpt>
      <trkpt lat="35.189330" lon="-114.061410">
        <ele>1012.802</ele>
        <time>2018-12-27T19:36:13Z</time>
      </trkpt>
      <trkpt lat="35.189290" lon="-114.061480">
        <ele>1012.522</ele>
        <time>2018-12-27T19:36:33Z</time>
      </trkpt>
      <trkpt lat="35.189240" lon="-114.061570">
        <ele>1011.908</ele>
        <time>2018-12-27T19:36:53Z</time>
      </trkpt>
      <trkpt lat="35.189200" lon="-114.061650">
        <ele>1011.737</ele>
        <time>2018-12-27T19:37:13Z</time>
      </trkpt>
      <trkpt lat="35.189100" lon="-114.061790">
        <ele>1012.175</ele>
        <time>2018-12-27T19:37:33Z</time>
      </trkpt>
      <trkpt lat="35.189000" lon="-114.061920">
        <ele>1012.840</ele>
        <time>2018-12-27T19:37:53Z</time>
      </trkpt>
      <trkpt lat="35.188890" lon="-114.062050">
        <ele>1012.951</ele>
        <time>2018-12-27T19:38:13Z</time>
      </trkpt>
      <trkpt lat="35.188810" lon="-114.062130">
        <ele>1012.996</ele>
        <time>2018-12-27T19:38:33Z</time>
      </trkpt>
      <trkpt lat="35.188760" lon="-114.062170">
        <ele>1012.927</ele>
        <time>2018-12-27T19:38:53Z</time>
      </trkpt>
      <trkpt lat="35.188650" lon="-114.062270">
        <ele>1012.810</ele>
        <time>2018-12-27T19:39:13Z</time>
      </trkpt>
      <trkpt lat="35.188580" lon="-114.062330">
        <ele>1012.980</ele>
        <time>2018-12-27T19:39:33Z</time>
      </trkpt>
      <trkpt lat="35.188420" lon="-114.062450">
        <ele>1012.757</ele>
        <time>2018-12-27T19:39:53Z</time>
      </trkpt>
      <trkpt lat="35.188350" lon="-114.062510">
        <ele>1012.400</ele>
        <time>2018-12-27T19:40:13Z</time>
      </trkpt>
      <trkpt lat="35.188270" lon="-114.062560">
        <ele>1012.320</ele>
        <time>2018-12-27T19:40:33Z</time>
      </trkpt>
      <trkpt lat="35.188190" lon="-114.062620">
        <ele>1012.108</ele>
        <time>2018-12-27T19:40:53Z</time>
      </trkpt>
      <trkpt lat="35.188120" lon="-114.062660">
        <ele>1011.928</ele>
        <time>2018-12-27T19:41:13Z</time>
      </trkpt>
      <trkpt lat="35.188050" lon="-114.062690">
        <ele>1011.836</ele>
        <time>2018-12-27T19:41:33Z</time>
      </trkpt>
      <trkpt lat="35.187970" lon="-114.062730">
        <ele>1011.811</ele>
        <time>2018-12-27T19:41:53Z</time>
      </trkpt>
      <trkpt lat="35.187850" lon="-114.062770">
        <ele>1011.612</ele>
        <time>2018-12-27T19:42:13Z</time>
      </trkpt>
      <trkpt lat="35.187670" lon="-114.062830">
        <ele>1011.417</ele>
        <time>2018-12-27T19:42:33Z</time>
      </trkpt>
      <trkpt lat="35.187520" lon="-114.062860">
        <ele>1010.918</ele>
        <time>2018-12-27T19:42:53Z</time>
      </trkpt>
      <trkpt lat="35.187370" lon="-114.062880">
        <ele>1010.481</ele>
        <time>2018-12-27T19:43:13Z</time>
      </trkpt>
      <trkpt lat="35.187330" lon="-114.062890">
        <ele>1010.141</ele>
        <time>2018-12-27T19:43:33Z</time>
      </trkpt>
      <trkpt lat="35.187100" lon="-114.062920">
        <ele>1007.837</ele>
        <time>2018-12-27T19:43:53Z</time>
      </trkpt>
      <trkpt lat="35.186830" lon="-114.062950">
        <ele>1005.849</ele>
        <time>2018-12-27T19:44:13Z</time>
      </trkpt>
      <trkpt lat="35.186330" lon="-114.062970">
        <ele>1011.013</ele>
        <time>2018-12-27T19:44:33Z</time>
      </trkpt>
      <trkpt lat="35.186150" lon="-114.062990">
        <ele>1011.508</ele>
        <time>2018-12-27T19:44:53Z</time>
      </trkpt>
      <trkpt lat="35.185970" lon="-114.063000">
        <ele>1011.796</ele>
        <time>2018-12-27T19:45:13Z</time>
      </trkpt>
      <trkpt lat="35.185580" lon="-114.063030">
        <ele>1010.684</ele>
        <time>2018-12-27T19:45:33Z</time>
      </trkpt>
      <trkpt lat="35.185240" lon="-114.063060">
        <ele>1009.279</ele>
        <time>2018-12-27T19:45:53Z</time>
      </trkpt>
      <trkpt lat="35.185050" lon="-114.063080">
        <ele>1009.210</ele>
        <time>2018-12-27T19:46:13Z</time>
      </trkpt>
      <trkpt lat="35.184780" lon="-114.063120">
        <ele>1009.685</ele>
        <time>2018-12-27T19:46:33Z</time>
      </trkpt>
      <trkpt lat="35.184490" lon="-114.063160">
        <ele>1009.886</ele>
        <time>2018-12-27T19:46:53Z</time>
      </trkpt>
      <trkpt lat="35.184220" lon="-114.063210">
        <ele>1010.749</ele>
        <time>2018-12-27T19:47:13Z</time>
      </trkpt>
      <trkpt lat="35.183550" lon="-114.063360">
        <ele>1012.019</ele>
        <time>2018-12-27T19:47:33Z</time>
      </trkpt>
      <trkpt lat="35.183250" lon="-114.063430">
        <ele>1012.612</ele>
        <time>2018-12-27T19:47:53Z</time>
      </trkpt>
      <trkpt lat="35.182930" lon="-114.063490">
        <ele>1010.432</ele>
        <time>2018-12-27T19:48:13Z</time>
      </trkpt>
      <trkpt lat="35.182620" lon="-114.063570">
        <ele>1009.205</ele>
        <time>2018-12-27T19:48:33Z</time>
      </trkpt>
      <trkpt lat="35.182230" lon="-114.063640">
        <ele>1008.608</ele>
        <time>2018-12-27T19:48:53Z</time>
      </trkpt>
      <trkpt lat="35.181690" lon="-114.063750">
        <ele>1004.664</ele>
        <time>2018-12-27T19:49:13Z</time>
      </trkpt>
      <trkpt lat="35.181150" lon="-114.063840">
        <ele>1000.872</ele>
        <time>2018-12-27T19:49:33Z</time>
      </trkpt>
      <trkpt lat="35.180520" lon="-114.063920">
        <ele>1004.327</ele>
        <time>2018-12-27T19:49:53Z</time>
      </trkpt>
      <trkpt lat="35.178930" lon="-114.064080">
        <ele>1004.258</ele>
        <time>2018-12-27T19:50:13Z</time>
      </trkpt>
      <trkpt lat="35.178180" lon="-114.064160">
        <ele>1000.983</ele>
        <time>2018-12-27T19:50:33Z</time>
      </trkpt>
      <trkpt lat="35.177850" lon="-114.064190">
        <ele>997.744</ele>
        <time>2018-12-27T19:50:53Z</time>
      </trkpt>
      <trkpt lat="35.177250" lon="-114.064240">
        <ele>997.517</ele>
        <time>2018-12-27T19:51:13Z</time>
      </trkpt>
      <trkpt lat="35.177090" lon="-114.064250">
        <ele>997.637</ele>
        <time>2018-12-27T19:51:33Z</time>
      </trkpt>
      <trkpt lat="35.176920" lon="-114.064250">
        <ele>997.888</ele>
        <time>2018-12-27T19:51:53Z</time>
      </trkpt>
      <trkpt lat="35.176770" lon="-114.064250">
        <ele>997.424</ele>
        <time>2018-12-27T19:52:13Z</time>
      </trkpt>
      <trkpt lat="35.176510" lon="-114.064250">
        <ele>992.926</ele>
        <time>2018-12-27T19:52:33Z</time>
      </trkpt>
      <trkpt lat="35.176370" lon="-114.064230">
        <ele>991.708</ele>
        <time>2018-12-27T19:52:53Z</time>
      </trkpt>
      <trkpt lat="35.176190" lon="-114.064210">
        <ele>991.131</ele>
        <time>2018-12-27T19:53:13Z</time>
      </trkpt>
      <trkpt lat="35.176010" lon="-114.064180">
        <ele>991.929</ele>
        <time>2018-12-27T19:53:33Z</time>
      </trkpt>
      <trkpt lat="35.175800" lon="-114.064140">
        <ele>994.534</ele>
        <time>2018-12-27T19:53:53Z</time>
      </trkpt>
      <trkpt lat="35.175700" lon="-114.064110">
        <ele>995.015</ele>
        <time>2018-12-27T19:54:13Z</time>
      </trkpt>
      <trkpt lat="35.175570" lon="-114.064070">
        <ele>996.720</ele>
        <time>2018-12-27T19:54:33Z</time>
      </trkpt>
      <trkpt lat="35.175330" lon="-114.063990">
        <ele>998.241</ele>
        <time>2018-12-27T19:54:53Z</time>
      </trkpt>
      <trkpt lat="35.175150" lon="-114.063910">
        <ele>997.964</ele>
        <time>2018-12-27T19:55:13Z</time>
      </trkpt>
      <trkpt lat="35.174910" lon="-114.063810">
        <ele>995.944</ele>
        <time>2018-12-27T19:55:33Z</time>
      </trkpt>
      <trkpt lat="35.174720" lon="-114.063720">
        <ele>992.993</ele>
        <time>2018-12-27T19:55:53Z</time>
      </trkpt>
      <trkpt lat="35.174520" lon="-114.063600">
        <ele>993.365</ele>
        <time>2018-12-27T19:56:13Z</time>
      </trkpt>
      <trkpt lat="35.174360" lon="-114.063500">
        <ele>992.921</ele>
        <time>2018-12-27T19:56:33Z</time>
      </trkpt>
      <trkpt lat="35.174140" lon="-114.063350">
        <ele>991.808</ele>
        <time>2018-12-27T19:56:53Z</time>
      </trkpt>
      <trkpt lat="35.173820" lon="-114.063100">
        <ele>990.562</ele>
        <time>2018-12-27T19:57:13Z</time>
      </trkpt>
      <trkpt lat="35.173410" lon="-114.062740">
        <ele>989.960</ele>
        <time>2018-12-27T19:57:33Z</time>
      </trkpt>
      <trkpt lat="35.172520" lon="-114.061910">
        <ele>992.615</ele>
        <time>2018-12-27T19:57:53Z</time>
      </trkpt>
      <trkpt lat="35.172350" lon="-114.061770">
        <ele>992.216</ele>
        <time>2018-12-27T19:58:13Z</time>
      </trkpt>
      <trkpt lat="35.172120" lon="-114.061580">
        <ele>992.721</ele>
        <time>2018-12-27T19:58:33Z</time>
      </trkpt>
      <trkpt lat="35.171950" lon="-114.061460">
        <ele>993.152</ele>
        <time>2018-12-27T19:58:53Z</time>
      </trkpt>
      <trkpt lat="35.171760" lon="-114.061320">
        <ele>993.945</ele>
        <time>2018-12-27T19:59:13Z</time>
      </trkpt>
      <trkpt lat="35.171520" lon="-114.061170">
        <ele>992.535</ele>
        <time>2018-12-27T19:59:33Z</time>
      </trkpt>
      <trkpt lat="35.171320" lon="-114.061060">
        <ele>996.754</ele>
        <time>2018-12-27T19:59:53Z</time>
      </trkpt>
      <trkpt lat="35.171180" lon="-114.061000">
        <ele>995.256</ele>
        <time>2018-12-27T20:00:13Z</time>
      </trkpt>
      <trkpt lat="35.170950" lon="-114.060890">
        <ele>993.811</ele>
        <time>2018-12-27T20:00:33Z</time>
      </trkpt>
      <trkpt lat="35.170760" lon="-114.060820">
        <ele>997.008</ele>
        <time>2018-12-27T20:00:53Z</time>
      </trkpt>
      <trkpt lat="35.170590" lon="-114.060770">
        <ele>996.918</ele>
        <time>2018-12-27T20:01:13Z</time>
      </trkpt>
      <trkpt lat="35.170400" lon="-114.060710">
        <ele>993.436</ele>
        <time>2018-12-27T20:01:33Z</time>
      </trkpt>
      <trkpt lat="35.170190" lon="-114.060660">
        <ele>991.261</ele>
        <time>2018-12-27T20:01:53Z</time>
      </trkpt>
      <trkpt lat="35.169910" lon="-114.060610">
        <ele>987.432</ele>
        <time>2018-12-27T20:02:13Z</time>
      </trkpt>
      <trkpt lat="35.169690" lon="-114.060590">
        <ele>986.087</ele>
        <time>2018-12-27T20:02:33Z</time>
      </trkpt>
      <trkpt lat="35.169430" lon="-114.060570">
        <ele>985.288</ele>
        <time>2018-12-27T20:02:53Z</time>
      </trkpt>
      <trkpt lat="35.169230" lon="-114.060570">
        <ele>984.041</ele>
        <time>2018-12-27T20:03:13Z</time>
      </trkpt>
      <trkpt lat="35.168970" lon="-114.060580">
        <ele>981.271</ele>
        <time>2018-12-27T20:03:33Z</time>
      </trkpt>
      <trkpt lat="35.168730" lon="-114.060610">
        <ele>979.791</ele>
        <time>2018-12-27T20:03:53Z</time>
      </trkpt>
      <trkpt lat="35.168560" lon="-114.060630">
        <ele>976.481</ele>
        <time>2018-12-27T20:04:13Z</time>
      </trkpt>
      <trkpt lat="35.168360" lon="-114.060670">
        <ele>973.819</ele>
        <time>2018-12-27T20:04:33Z</time>
      </trkpt>
      <trkpt lat="35.168220" lon="-114.060710">
        <ele>973.608</ele>
        <time>2018-12-27T20:04:53Z</time>
      </trkpt>
      <trkpt lat="35.168020" lon="-114.060760">
        <ele>973.522</ele>
        <time>2018-12-27T20:05:13Z</time>
      </trkpt>
      <trkpt lat="35.167730" lon="-114.060860">
        <ele>970.970</ele>
        <time>2018-12-27T20:05:33Z</time>
      </trkpt>
      <trkpt lat="35.167490" lon="-114.060960">
        <ele>970.065</ele>
        <time>2018-12-27T20:05:53Z</time>
      </trkpt>
      <trkpt lat="35.167250" lon="-114.061080">
        <ele>967.556</ele>
        <time>2018-12-27T20:06:13Z</time>
      </trkpt>
      <trkpt lat="35.167080" lon="-114.061170">
        <ele>964.271</ele>
        <time>2018-12-27T20:06:33Z</time>
      </trkpt>
      <trkpt lat="35.166950" lon="-114.061240">
        <ele>964.212</ele>
        <time>2018-12-27T20:06:53Z</time>
      </trkpt>
      <trkpt lat="35.166780" lon="-114.061350">
        <ele>964.065</ele>
        <time>2018-12-27T20:07:13Z</time>
      </trkpt>
      <trkpt lat="35.166640" lon="-114.061450">
        <ele>963.945</ele>
        <time>2018-12-27T20:07:33Z</time>
      </trkpt>
      <trkpt lat="35.166480" lon="-114.061570">
        <ele>963.635</ele>
        <time>2018-12-27T20:07:53Z</time>
      </trkpt>
      <trkpt lat="35.166330" lon="-114.061690">
        <ele>962.286</ele>
        <time>2018-12-27T20:08:13Z</time>
      </trkpt>
      <trkpt lat="35.166140" lon="-114.061850">
        <ele>961.214</ele>
        <time>2018-12-27T20:08:33Z</time>
      </trkpt>
      <trkpt lat="35.165930" lon="-114.062060">
        <ele>961.208</ele>
        <time>2018-12-27T20:08:53Z</time>
      </trkpt>
      <trkpt lat="35.165800" lon="-114.062190">
        <ele>961.146</ele>
        <time>2018-12-27T20:09:13Z</time>
      </trkpt>
      <trkpt lat="35.165680" lon="-114.062330">
        <ele>961.054</ele>
        <time>2018-12-27T20:09:33Z</time>
      </trkpt>
      <trkpt lat="35.165500" lon="-114.062540">
        <ele>960.999</ele>
        <time>2018-12-27T20:09:53Z</time>
      </trkpt>
      <trkpt lat="35.165320" lon="-114.062780">
        <ele>962.410</ele>
        <time>2018-12-27T20:10:13Z</time>
      </trkpt>
      <trkpt lat="35.165170" lon="-114.063010">
        <ele>966.715</ele>
        <time>2018-12-27T20:10:33Z</time>
      </trkpt>
      <trkpt lat="35.165030" lon="-114.063240">
        <ele>970.946</ele>
        <time>2018-12-27T20:10:53Z</time>
      </trkpt>
      <trkpt lat="35.164910" lon="-114.063460">
        <ele>965.469</ele>
        <time>2018-12-27T20:11:13Z</time>
      </trkpt>
      <trkpt lat="35.164790" lon="-114.063680">
        <ele>960.689</ele>
        <time>2018-12-27T20:11:33Z</time>
      </trkpt>
      <trkpt lat="35.164650" lon="-114.063980">
        <ele>956.613</ele>
        <time>2018-12-27T20:11:53Z</time>
      </trkpt>
      <trkpt lat="35.164560" lon="-114.064190">
        <ele>954.943</ele>
        <time>2018-12-27T20:12:13Z</time>
      </trkpt>
      <trkpt lat="35.164440" lon="-114.064520">
        <ele>953.007</ele>
        <time>2018-12-27T20:12:33Z</time>
      </trkpt>
      <trkpt lat="35.164320" lon="-114.064870">
        <ele>952.308</ele>
        <time>2018-12-27T20:12:53Z</time>
      </trkpt>
      <trkpt lat="35.164180" lon="-114.065320">
        <ele>951.944</ele>
        <time>2018-12-27T20:13:13Z</time>
      </trkpt>
      <trkpt lat="35.163950" lon="-114.066130">
        <ele>951.622</ele>
        <time>2018-12-27T20:13:33Z</time>
      </trkpt>
      <trkpt lat="35.163170" lon="-114.068760">
        <ele>946.167</ele>
        <time>2018-12-27T20:13:53Z</time>
      </trkpt>
      <trkpt lat="35.162310" lon="-114.071700">
        <ele>940.098</ele>
        <time>2018-12-27T20:14:13Z</time>
      </trkpt>
      <trkpt lat="35.162080" lon="-114.072490">
        <ele>939.473</ele>
        <time>2018-12-27T20:14:33Z</time>
      </trkpt>
      <trkpt lat="35.161960" lon="-114.072900">
        <ele>937.374</ele>
        <time>2018-12-27T20:14:53Z</time>
      </trkpt>
      <trkpt lat="35.161840" lon="-114.073300">
        <ele>937.977</ele>
        <time>2018-12-27T20:15:13Z</time>
      </trkpt>
      <trkpt lat="35.161610" lon="-114.074090">
        <ele>939.487</ele>
        <time>2018-12-27T20:15:33Z</time>
      </trkpt>
      <trkpt lat="35.161470" lon="-114.074530">
        <ele>939.591</ele>
        <time>2018-12-27T20:15:53Z</time>
      </trkpt>
      <trkpt lat="35.161350" lon="-114.074880">
        <ele>937.081</ele>
        <time>2018-12-27T20:16:13Z</time>
      </trkpt>
      <trkpt lat="35.161260" lon="-114.075120">
        <ele>935.919</ele>
        <time>2018-12-27T20:16:33Z</time>
      </trkpt>
      <trkpt lat="35.161150" lon="-114.075400">
        <ele>935.008</ele>
        <time>2018-12-27T20:16:53Z</time>
      </trkpt>
      <trkpt lat="35.160990" lon="-114.075760">
        <ele>934.482</ele>
        <time>2018-12-27T20:17:13Z</time>
      </trkpt>
      <trkpt lat="35.160740" lon="-114.076330">
        <ele>934.150</ele>
        <time>2018-12-27T20:17:33Z</time>
      </trkpt>
      <trkpt lat="35.160310" lon="-114.077290">
        <ele>933.095</ele>
        <time>2018-12-27T20:17:53Z</time>
      </trkpt>
      <trkpt lat="35.159890" lon="-114.078230">
        <ele>929.766</ele>
        <time>2018-12-27T20:18:13Z</time>
      </trkpt>
      <trkpt lat="35.159580" lon="-114.078940">
        <ele>928.241</ele>
        <time>2018-12-27T20:18:33Z</time>
      </trkpt>
      <trkpt lat="35.159260" lon="-114.079640">
        <ele>927.292</ele>
        <time>2018-12-27T20:18:53Z</time>
      </trkpt>
      <trkpt lat="35.158910" lon="-114.080370">
        <ele>925.715</ele>
        <time>2018-12-27T20:19:13Z</time>
      </trkpt>
      <trkpt lat="35.158730" lon="-114.080720">
        <ele>923.515</ele>
        <time>2018-12-27T20:19:33Z</time>
      </trkpt>
      <trkpt lat="35.158700" lon="-114.080770">
        <ele>923.679</ele>
        <time>2018-12-27T20:19:53Z</time>
      </trkpt>
      <trkpt lat="35.158510" lon="-114.081150">
        <ele>924.105</ele>
        <time>2018-12-27T20:20:13Z</time>
      </trkpt>
      <trkpt lat="35.158090" lon="-114.081930">
        <ele>923.725</ele>
        <time>2018-12-27T20:20:33Z</time>
      </trkpt>
      <trkpt lat="35.157710" lon="-114.082590">
        <ele>923.108</ele>
        <time>2018-12-27T20:20:53Z</time>
      </trkpt>
      <trkpt lat="35.157260" lon="-114.083350">
        <ele>921.920</ele>
        <time>2018-12-27T20:21:13Z</time>
      </trkpt>
      <trkpt lat="35.156870" lon="-114.083990">
        <ele>920.978</ele>
        <time>2018-12-27T20:21:33Z</time>
      </trkpt>
      <trkpt lat="35.156530" lon="-114.084520">
        <ele>919.713</ele>
        <time>2018-12-27T20:21:53Z</time>
      </trkpt>
      <trkpt lat="35.156110" lon="-114.085150">
        <ele>917.974</ele>
        <time>2018-12-27T20:22:13Z</time>
      </trkpt>
      <trkpt lat="35.155800" lon="-114.085600">
        <ele>915.929</ele>
        <time>2018-12-27T20:22:33Z</time>
      </trkpt>
      <trkpt lat="35.155540" lon="-114.085960">
        <ele>915.220</ele>
        <time>2018-12-27T20:22:53Z</time>
      </trkpt>
      <trkpt lat="35.155100" lon="-114.086550">
        <ele>914.863</ele>
        <time>2018-12-27T20:23:13Z</time>
      </trkpt>
      <trkpt lat="35.154570" lon="-114.087230">
        <ele>913.973</ele>
        <time>2018-12-27T20:23:33Z</time>
      </trkpt>
      <trkpt lat="35.154250" lon="-114.087630">
        <ele>912.991</ele>
        <time>2018-12-27T20:23:53Z</time>
      </trkpt>
      <trkpt lat="35.154090" lon="-114.087810">
        <ele>912.181</ele>
        <time>2018-12-27T20:24:13Z</time>
      </trkpt>
      <trkpt lat="35.153610" lon="-114.088370">
        <ele>909.619</ele>
        <time>2018-12-27T20:24:33Z</time>
      </trkpt>
      <trkpt lat="35.153140" lon="-114.088910">
        <ele>908.508</ele>
        <time>2018-12-27T20:24:53Z</time>
      </trkpt>
      <trkpt lat="35.152650" lon="-114.089440">
        <ele>907.812</ele>
        <time>2018-12-27T20:25:13Z</time>
      </trkpt>
      <trkpt lat="35.152060" lon="-114.090050">
        <ele>906.970</ele>
        <time>2018-12-27T20:25:33Z</time>
      </trkpt>
      <trkpt lat="35.151680" lon="-114.090430">
        <ele>905.995</ele>
        <time>2018-12-27T20:25:53Z</time>
      </trkpt>
      <trkpt lat="35.151110" lon="-114.090960">
        <ele>904.656</ele>
        <time>2018-12-27T20:26:13Z</time>
      </trkpt>
      <trkpt lat="35.150930" lon="-114.091140">
        <ele>904.261</ele>
        <time>2018-12-27T20:26:33Z</time>
      </trkpt>
      <trkpt lat="35.150580" lon="-114.091440">
        <ele>903.792</ele>
        <time>2018-12-27T20:26:53Z</time>
      </trkpt>
      <trkpt lat="35.150300" lon="-114.091670">
        <ele>903.285</ele>
        <time>2018-12-27T20:27:13Z</time>
      </trkpt>
      <trkpt lat="35.150210" lon="-114.091740">
        <ele>903.165</ele>
        <time>2018-12-27T20:27:33Z</time>
      </trkpt>
      <trkpt lat="35.150110" lon="-114.091820">
        <ele>903.098</ele>
        <time>2018-12-27T20:27:53Z</time>
      </trkpt>
      <trkpt lat="35.149960" lon="-114.091930">
        <ele>902.815</ele>
        <time>2018-12-27T20:28:13Z</time>
      </trkpt>
      <trkpt lat="35.149600" lon="-114.092170">
        <ele>902.426</ele>
        <time>2018-12-27T20:28:33Z</time>
      </trkpt>
      <trkpt lat="35.148480" lon="-114.092910">
        <ele>902.708</ele>
        <time>2018-12-27T20:28:53Z</time>
      </trkpt>
      <trkpt lat="35.147830" lon="-114.093350">
        <ele>901.352</ele>
        <time>2018-12-27T20:29:13Z</time>
      </trkpt>
      <trkpt lat="35.147480" lon="-114.093590">
        <ele>901.170</ele>
        <time>2018-12-27T20:29:33Z</time>
      </trkpt>
      <trkpt lat="35.146600" lon="-114.094210">
        <ele>899.565</ele>
        <time>2018-12-27T20:29:53Z</time>
      </trkpt>
      <trkpt lat="35.145900" lon="-114.094700">
        <ele>897.616</ele>
        <time>2018-12-27T20:30:13Z</time>
      </trkpt>
      <trkpt lat="35.144250" lon="-114.095850">
        <ele>893.991</ele>
        <time>2018-12-27T20:30:33Z</time>
      </trkpt>
      <trkpt lat="35.143680" lon="-114.096260">
        <ele>892.552</ele>
        <time>2018-12-27T20:30:53Z</time>
      </trkpt>
      <trkpt lat="35.143170" lon="-114.096610">
        <ele>891.585</ele>
        <time>2018-12-27T20:31:13Z</time>
      </trkpt>
      <trkpt lat="35.142470" lon="-114.097100">
        <ele>890.735</ele>
        <time>2018-12-27T20:31:33Z</time>
      </trkpt>
      <trkpt lat="35.141390" lon="-114.097850">
        <ele>886.237</ele>
        <time>2018-12-27T20:31:53Z</time>
      </trkpt>
      <trkpt lat="35.140990" lon="-114.098120">
        <ele>885.349</ele>
        <time>2018-12-27T20:32:13Z</time>
      </trkpt>
      <trkpt lat="35.140690" lon="-114.098330">
        <ele>885.013</ele>
        <time>2018-12-27T20:32:33Z</time>
      </trkpt>
      <trkpt lat="35.140480" lon="-114.098460">
        <ele>884.908</ele>
        <time>2018-12-27T20:32:53Z</time>
      </trkpt>
      <trkpt lat="35.140110" lon="-114.098680">
        <ele>884.316</ele>
        <time>2018-12-27T20:33:13Z</time>
      </trkpt>
      <trkpt lat="35.139800" lon="-114.098850">
        <ele>883.044</ele>
        <time>2018-12-27T20:33:33Z</time>
      </trkpt>
      <trkpt lat="35.139570" lon="-114.098970">
        <ele>881.719</ele>
        <time>2018-12-27T20:33:53Z</time>
      </trkpt>
      <trkpt lat="35.139300" lon="-114.099100">
        <ele>880.450</ele>
        <time>2018-12-27T20:34:13Z</time>
      </trkpt>
      <trkpt lat="35.138980" lon="-114.099250">
        <ele>879.315</ele>
        <time>2018-12-27T20:34:33Z</time>
      </trkpt>
      <trkpt lat="35.138750" lon="-114.099360">
        <ele>878.926</ele>
        <time>2018-12-27T20:34:53Z</time>
      </trkpt>
      <trkpt lat="35.138600" lon="-114.099430">
        <ele>879.249</ele>
        <time>2018-12-27T20:35:13Z</time>
      </trkpt>
      <trkpt lat="35.137450" lon="-114.099960">
        <ele>880.559</ele>
        <time>2018-12-27T20:35:33Z</time>
      </trkpt>
      <trkpt lat="35.137030" lon="-114.100150">
        <ele>879.781</ele>
        <time>2018-12-27T20:35:53Z</time>
      </trkpt>
      <trkpt lat="35.136600" lon="-114.100350">
        <ele>878.961</ele>
        <time>2018-12-27T20:36:13Z</time>
      </trkpt>
      <trkpt lat="35.136250" lon="-114.100520">
        <ele>878.517</ele>
        <time>2018-12-27T20:36:33Z</time>
      </trkpt>
      <trkpt lat="35.136080" lon="-114.100610">
        <ele>878.508</ele>
        <time>2018-12-27T20:36:53Z</time>
      </trkpt>
      <trkpt lat="35.135870" lon="-114.100720">
        <ele>878.291</ele>
        <time>2018-12-27T20:37:13Z</time>
      </trkpt>
      <trkpt lat="35.135740" lon="-114.100800">
        <ele>878.129</ele>
        <time>2018-12-27T20:37:33Z</time>
      </trkpt>
      <trkpt lat="35.135640" lon="-114.100860">
        <ele>877.934</ele>
        <time>2018-12-27T20:37:53Z</time>
      </trkpt>
      <trkpt lat="35.135440" lon="-114.101000">
        <ele>877.485</ele>
        <time>2018-12-27T20:38:13Z</time>
      </trkpt>
      <trkpt lat="35.135660" lon="-114.101480">
        <ele>876.230</ele>
        <time>2018-12-27T20:38:33Z</time>
      </trkpt>
      <trkpt lat="35.135950" lon="-114.102090">
        <ele>874.841</ele>
        <time>2018-12-27T20:38:53Z</time>
      </trkpt>
      <trkpt lat="35.136240" lon="-114.102700">
        <ele>873.294</ele>
        <time>2018-12-27T20:39:13Z</time>
      </trkpt>
      <trkpt lat="35.136450" lon="-114.103160">
        <ele>872.874</ele>
        <time>2018-12-27T20:39:33Z</time>
      </trkpt>
      <trkpt lat="35.136870" lon="-114.104020">
        <ele>874.922</ele>
        <time>2018-12-27T20:39:53Z</time>
      </trkpt>
      <trkpt lat="35.137100" lon="-114.104530">
        <ele>875.662</ele>
        <time>2018-12-27T20:40:13Z</time>
      </trkpt>
      <trkpt lat="35.137240" lon="-114.104830">
        <ele>875.708</ele>
        <time>2018-12-27T20:40:33Z</time>
      </trkpt>
      <trkpt lat="35.137350" lon="-114.105070">
        <ele>875.608</ele>
        <time>2018-12-27T20:40:53Z</time>
      </trkpt>
      <trkpt lat="35.137460" lon="-114.105280">
        <ele>875.695</ele>
        <time>2018-12-27T20:41:13Z</time>
      </trkpt>
      <trkpt lat="35.137550" lon="-114.105450">
        <ele>875.873</ele>
        <time>2018-12-27T20:41:33Z</time>
      </trkpt>
      <trkpt lat="35.137650" lon="-114.105630">
        <ele>876.118</ele>
        <time>2018-12-27T20:41:53Z</time>
      </trkpt>
      <trkpt lat="35.137730" lon="-114.105770">
        <ele>876.349</ele>
        <time>2018-12-27T20:42:13Z</time>
      </trkpt>
      <trkpt lat="35.137810" lon="-114.105900">
        <ele>876.684</ele>
        <time>2018-12-27T20:42:33Z</time>
      </trkpt>
      <trkpt lat="35.137860" lon="-114.105970">
        <ele>876.995</ele>
        <time>2018-12-27T20:42:53Z</time>
      </trkpt>
      <trkpt lat="35.137890" lon="-114.106010">
        <ele>877.038</ele>
        <time>2018-12-27T20:43:13Z</time>
      </trkpt>
      <trkpt lat="35.137960" lon="-114.106070">
        <ele>877.298</ele>
        <time>2018-12-27T20:43:33Z</time>
      </trkpt>
      <trkpt lat="35.138100" lon="-114.106250">
        <ele>877.748</ele>
        <time>2018-12-27T20:43:53Z</time>
      </trkpt>
      <trkpt lat="35.138190" lon="-114.106350">
        <ele>877.861</ele>
        <time>2018-12-27T20:44:13Z</time>
      </trkpt>
      <trkpt lat="35.138330" lon="-114.106500">
        <ele>877.617</ele>
        <time>2018-12-27T20:44:33Z</time>
      </trkpt>
      <trkpt lat="35.138440" lon="-114.106600">
        <ele>877.408</ele>
        <time>2018-12-27T20:44:53Z</time>
      </trkpt>
      <trkpt lat="35.138540" lon="-114.106680">
        <ele>877.127</ele>
        <time>2018-12-27T20:45:13Z</time>
      </trkpt>
      <trkpt lat="35.138890" lon="-114.106970">
        <ele>876.945</ele>
        <time>2018-12-27T20:45:33Z</time>
      </trkpt>
      <trkpt lat="35.138910" lon="-114.106980">
        <ele>876.980</ele>
        <time>2018-12-27T20:45:53Z</time>
      </trkpt>
      <trkpt lat="35.139230" lon="-114.107210">
        <ele>876.561</ele>
        <time>2018-12-27T20:46:13Z</time>
      </trkpt>
      <trkpt lat="35.139231" lon="-114.107211">
        <ele>876.546</ele>
        <time>2018-12-27T20:46:33Z</time>
      </trkpt>
      <trkpt lat="35.139180" lon="-114.107290">
        <ele>875.967</ele>
        <time>2018-12-27T20:46:53Z</time>
      </trkpt>
      <trkpt lat="35.138960" lon="-114.107700">
        <ele>873.240</ele>
        <time>2018-12-27T20:47:13Z</time>
      </trkpt>
      <trkpt lat="35.138340" lon="-114.108880">
        <ele>874.380</ele>
        <time>2018-12-27T20:47:33Z</time>
      </trkpt>
      <trkpt lat="35.138250" lon="-114.109050">
        <ele>874.411</ele>
        <time>2018-12-27T20:47:53Z</time>
      </trkpt>
      <trkpt lat="35.138090" lon="-114.109340">
        <ele>874.321</ele>
        <time>2018-12-27T20:48:13Z</time>
      </trkpt>
      <trkpt lat="35.137960" lon="-114.109580">
        <ele>874.103</ele>
        <time>2018-12-27T20:48:33Z</time>
      </trkpt>
      <trkpt lat="35.137770" lon="-114.109920">
        <ele>873.908</ele>
        <time>2018-12-27T20:48:53Z</time>
      </trkpt>
      <trkpt lat="35.137310" lon="-114.110650">
        <ele>873.044</ele>
        <time>2018-12-27T20:49:13Z</time>
      </trkpt>
      <trkpt lat="35.136550" lon="-114.111880">
        <ele>871.012</ele>
        <time>2018-12-27T20:49:33Z</time>
      </trkpt>
      <trkpt lat="35.136420" lon="-114.112090">
        <ele>870.597</ele>
        <time>2018-12-27T20:49:53Z</time>
      </trkpt>
      <trkpt lat="35.135010" lon="-114.114350">
        <ele>865.718</ele>
        <time>2018-12-27T20:50:13Z</time>
      </trkpt>
      <trkpt lat="35.134370" lon="-114.115390">
        <ele>862.953</ele>
        <time>2018-12-27T20:50:33Z</time>
      </trkpt>
      <trkpt lat="35.134140" lon="-114.115760">
        <ele>861.824</ele>
        <time>2018-12-27T20:50:53Z</time>
      </trkpt>
      <trkpt lat="35.133940" lon="-114.116090">
        <ele>861.387</ele>
        <time>2018-12-27T20:51:13Z</time>
      </trkpt>
      <trkpt lat="35.133620" lon="-114.116600">
        <ele>860.817</ele>
        <time>2018-12-27T20:51:33Z</time>
      </trkpt>
      <trkpt lat="35.133350" lon="-114.117030">
        <ele>860.352</ele>
        <time>2018-12-27T20:51:53Z</time>
      </trkpt>
      <trkpt lat="35.132770" lon="-114.117970">
        <ele>858.453</ele>
        <time>2018-12-27T20:52:13Z</time>
      </trkpt>
      <trkpt lat="35.132130" lon="-114.119000">
        <ele>855.208</ele>
        <time>2018-12-27T20:52:33Z</time>
      </trkpt>
      <trkpt lat="35.131960" lon="-114.119270">
        <ele>854.908</ele>
        <time>2018-12-27T20:52:53Z</time>
      </trkpt>
      <trkpt lat="35.131390" lon="-114.120180">
        <ele>854.418</ele>
        <time>2018-12-27T20:53:13Z</time>
      </trkpt>
      <trkpt lat="35.131050" lon="-114.120710">
        <ele>853.966</ele>
        <time>2018-12-27T20:53:33Z</time>
      </trkpt>
      <trkpt lat="35.130760" lon="-114.121160">
        <ele>853.841</ele>
        <time>2018-12-27T20:53:53Z</time>
      </trkpt>
      <trkpt lat="35.130590" lon="-114.121440">
        <ele>853.452</ele>
        <time>2018-12-27T20:54:13Z</time>
      </trkpt>
      <trkpt lat="35.130430" lon="-114.121690">
        <ele>852.817</ele>
        <time>2018-12-27T20:54:33Z</time>
      </trkpt>
      <trkpt lat="35.130100" lon="-114.122230">
        <ele>851.468</ele>
        <time>2018-12-27T20:54:53Z</time>
      </trkpt>
      <trkpt lat="35.128540" lon="-114.124740">
        <ele>847.591</ele>
        <time>2018-12-27T20:55:13Z</time>
      </trkpt>
      <trkpt lat="35.127890" lon="-114.125770">
        <ele>845.811</ele>
        <time>2018-12-27T20:55:33Z</time>
      </trkpt>
      <trkpt lat="35.127340" lon="-114.126640">
        <ele>844.999</ele>
        <time>2018-12-27T20:55:53Z</time>
      </trkpt>
      <trkpt lat="35.127130" lon="-114.126980">
        <ele>844.407</ele>
        <time>2018-12-27T20:56:13Z</time>
      </trkpt>
      <trkpt lat="35.126950" lon="-114.127260">
        <ele>843.927</ele>
        <time>2018-12-27T20:56:33Z</time>
      </trkpt>
      <trkpt lat="35.126630" lon="-114.127770">
        <ele>842.808</ele>
        <time>2018-12-27T20:56:53Z</time>
      </trkpt>
      <trkpt lat="35.126230" lon="-114.128410">
        <ele>841.442</ele>
        <time>2018-12-27T20:57:13Z</time>
      </trkpt>
      <trkpt lat="35.125900" lon="-114.128950">
        <ele>840.140</ele>
        <time>2018-12-27T20:57:33Z</time>
      </trkpt>
      <trkpt lat="35.125130" lon="-114.130180">
        <ele>837.415</ele>
        <time>2018-12-27T20:57:53Z</time>
      </trkpt>
      <trkpt lat="35.124630" lon="-114.130970">
        <ele>835.836</ele>
        <time>2018-12-27T20:58:13Z</time>
      </trkpt>
      <trkpt lat="35.123770" lon="-114.132350">
        <ele>831.911</ele>
        <time>2018-12-27T20:58:33Z</time>
      </trkpt>
      <trkpt lat="35.123300" lon="-114.133100">
        <ele>829.552</ele>
        <time>2018-12-27T20:58:53Z</time>
      </trkpt>
      <trkpt lat="35.122430" lon="-114.134480">
        <ele>826.575</ele>
        <time>2018-12-27T20:59:13Z</time>
      </trkpt>
      <trkpt lat="35.122380" lon="-114.134560">
        <ele>826.455</ele>
        <time>2018-12-27T20:59:33Z</time>
      </trkpt>
      <trkpt lat="35.122230" lon="-114.134790">
        <ele>827.586</ele>
        <time>2018-12-27T20:59:53Z</time>
      </trkpt>
      <trkpt lat="35.122060" lon="-114.135040">
        <ele>829.160</ele>
        <time>2018-12-27T21:00:13Z</time>
      </trkpt>
      <trkpt lat="35.121950" lon="-114.135180">
        <ele>829.826</ele>
        <time>2018-12-27T21:00:33Z</time>
      </trkpt>
      <trkpt lat="35.121880" lon="-114.135270">
        <ele>830.008</ele>
        <time>2018-12-27T21:00:53Z</time>
      </trkpt>
      <trkpt lat="35.121810" lon="-114.135350">
        <ele>829.931</ele>
        <time>2018-12-27T21:01:13Z</time>
      </trkpt>
      <trkpt lat="35.121650" lon="-114.135520">
        <ele>829.889</ele>
        <time>2018-12-27T21:01:33Z</time>
      </trkpt>
      <trkpt lat="35.121530" lon="-114.135640">
        <ele>829.444</ele>
        <time>2018-12-27T21:01:53Z</time>
      </trkpt>
      <trkpt lat="35.121400" lon="-114.135770">
        <ele>828.655</ele>
        <time>2018-12-27T21:02:13Z</time>
      </trkpt>
      <trkpt lat="35.121280" lon="-114.135880">
        <ele>827.230</ele>
        <time>2018-12-27T21:02:33Z</time>
      </trkpt>
      <trkpt lat="35.121160" lon="-114.135990">
        <ele>825.811</ele>
        <time>2018-12-27T21:02:53Z</time>
      </trkpt>
      <trkpt lat="35.120990" lon="-114.136120">
        <ele>824.534</ele>
        <time>2018-12-27T21:03:13Z</time>
      </trkpt>
      <trkpt lat="35.120830" lon="-114.136230">
        <ele>824.264</ele>
        <time>2018-12-27T21:03:33Z</time>
      </trkpt>
      <trkpt lat="35.120600" lon="-114.136400">
        <ele>824.119</ele>
        <time>2018-12-27T21:03:53Z</time>
      </trkpt>
      <trkpt lat="35.120470" lon="-114.136510">
        <ele>823.809</ele>
        <time>2018-12-27T21:04:13Z</time>
      </trkpt>
      <trkpt lat="35.120240" lon="-114.136690">
        <ele>823.319</ele>
        <time>2018-12-27T21:04:33Z</time>
      </trkpt>
      <trkpt lat="35.120080" lon="-114.136820">
        <ele>822.708</ele>
        <time>2018-12-27T21:04:53Z</time>
      </trkpt>
      <trkpt lat="35.119970" lon="-114.136920">
        <ele>822.314</ele>
        <time>2018-12-27T21:05:13Z</time>
      </trkpt>
      <trkpt lat="35.119790" lon="-114.137080">
        <ele>821.592</ele>
        <time>2018-12-27T21:05:33Z</time>
      </trkpt>
      <trkpt lat="35.119530" lon="-114.137340">
        <ele>820.037</ele>
        <time>2018-12-27T21:05:53Z</time>
      </trkpt>
      <trkpt lat="35.119390" lon="-114.137490">
        <ele>819.378</ele>
        <time>2018-12-27T21:06:13Z</time>
      </trkpt>
      <trkpt lat="35.119250" lon="-114.137640">
        <ele>818.813</ele>
        <time>2018-12-27T21:06:33Z</time>
      </trkpt>
      <trkpt lat="35.118940" lon="-114.138000">
        <ele>817.954</ele>
        <time>2018-12-27T21:06:53Z</time>
      </trkpt>
      <trkpt lat="35.118550" lon="-114.138490">
        <ele>817.397</ele>
        <time>2018-12-27T21:07:13Z</time>
      </trkpt>
      <trkpt lat="35.118170" lon="-114.138970">
        <ele>816.377</ele>
        <time>2018-12-27T21:07:33Z</time>
      </trkpt>
      <trkpt lat="35.117720" lon="-114.139560">
        <ele>815.166</ele>
        <time>2018-12-27T21:07:53Z</time>
      </trkpt>
      <trkpt lat="35.117510" lon="-114.139830">
        <ele>814.329</ele>
        <time>2018-12-27T21:08:13Z</time>
      </trkpt>
      <trkpt lat="35.117070" lon="-114.140390">
        <ele>813.321</ele>
        <time>2018-12-27T21:08:33Z</time>
      </trkpt>
      <trkpt lat="35.116160" lon="-114.141560">
        <ele>812.008</ele>
        <time>2018-12-27T21:08:53Z</time>
      </trkpt>
      <trkpt lat="35.115710" lon="-114.142120">
        <ele>811.599</ele>
        <time>2018-12-27T21:09:13Z</time>
      </trkpt>
      <trkpt lat="35.114490" lon="-114.143640">
        <ele>807.817</ele>
        <time>2018-12-27T21:09:33Z</time>
      </trkpt>
      <trkpt lat="35.113830" lon="-114.144450">
        <ele>806.652</ele>
        <time>2018-12-27T21:09:53Z</time>
      </trkpt>
      <trkpt lat="35.113230" lon="-114.145180">
        <ele>805.533</ele>
        <time>2018-12-27T21:10:13Z</time>
      </trkpt>
      <trkpt lat="35.112620" lon="-114.145930">
        <ele>804.418</ele>
        <time>2018-12-27T21:10:33Z</time>
      </trkpt>
      <trkpt lat="35.112480" lon="-114.146100">
        <ele>803.919</ele>
        <time>2018-12-27T21:10:53Z</time>
      </trkpt>
      <trkpt lat="35.112350" lon="-114.146260">
        <ele>803.522</ele>
        <time>2018-12-27T21:11:13Z</time>
      </trkpt>
      <trkpt lat="35.112050" lon="-114.146610">
        <ele>802.612</ele>
        <time>2018-12-27T21:11:33Z</time>
      </trkpt>
      <trkpt lat="35.111640" lon="-114.147100">
        <ele>801.586</ele>
        <time>2018-12-27T21:11:53Z</time>
      </trkpt>
      <trkpt lat="35.111180" lon="-114.147650">
        <ele>800.660</ele>
        <time>2018-12-27T21:12:13Z</time>
      </trkpt>
      <trkpt lat="35.110830" lon="-114.148060">
        <ele>800.126</ele>
        <time>2018-12-27T21:12:33Z</time>
      </trkpt>
      <trkpt lat="35.110640" lon="-114.148280">
        <ele>799.708</ele>
        <time>2018-12-27T21:12:53Z</time>
      </trkpt>
      <trkpt lat="35.110400" lon="-114.148570">
        <ele>799.291</ele>
        <time>2018-12-27T21:13:13Z</time>
      </trkpt>
      <trkpt lat="35.110090" lon="-114.148930">
        <ele>798.579</ele>
        <time>2018-12-27T21:13:33Z</time>
      </trkpt>
      <trkpt lat="35.109650" lon="-114.149450">
        <ele>797.364</ele>
        <time>2018-12-27T21:13:53Z</time>
      </trkpt>
      <trkpt lat="35.109230" lon="-114.149950">
        <ele>796.285</ele>
        <time>2018-12-27T21:14:13Z</time>
      </trkpt>
      <trkpt lat="35.108740" lon="-114.150530">
        <ele>795.280</ele>
        <time>2018-12-27T21:14:33Z</time>
      </trkpt>
      <trkpt lat="35.108360" lon="-114.150990">
        <ele>794.421</ele>
        <time>2018-12-27T21:14:53Z</time>
      </trkpt>
      <trkpt lat="35.108060" lon="-114.151380">
        <ele>793.864</ele>
        <time>2018-12-27T21:15:13Z</time>
      </trkpt>
      <trkpt lat="35.107980" lon="-114.151490">
        <ele>793.644</ele>
        <time>2018-12-27T21:15:33Z</time>
      </trkpt>
      <trkpt lat="35.107770" lon="-114.151780">
        <ele>793.246</ele>
        <time>2018-12-27T21:15:53Z</time>
      </trkpt>
      <trkpt lat="35.107420" lon="-114.152300">
        <ele>792.588</ele>
        <time>2018-12-27T21:16:13Z</time>
      </trkpt>
      <trkpt lat="35.107070" lon="-114.152810">
        <ele>791.516</ele>
        <time>2018-12-27T21:16:33Z</time>
      </trkpt>
      <trkpt lat="35.106790" lon="-114.153230">
        <ele>790.508</ele>
        <time>2018-12-27T21:16:53Z</time>
      </trkpt>
      <trkpt lat="35.106510" lon="-114.153640">
        <ele>789.697</ele>
        <time>2018-12-27T21:17:13Z</time>
      </trkpt>
      <trkpt lat="35.106300" lon="-114.153950">
        <ele>789.155</ele>
        <time>2018-12-27T21:17:33Z</time>
      </trkpt>
      <trkpt lat="35.106090" lon="-114.154280">
        <ele>788.640</ele>
        <time>2018-12-27T21:17:53Z</time>
      </trkpt>
      <trkpt lat="35.105890" lon="-114.154580">
        <ele>788.141</ele>
        <time>2018-12-27T21:18:13Z</time>
      </trkpt>
      <trkpt lat="35.105690" lon="-114.154890">
        <ele>787.626</ele>
        <time>2018-12-27T21:18:33Z</time>
      </trkpt>
      <trkpt lat="35.105550" lon="-114.155100">
        <ele>787.137</ele>
        <time>2018-12-27T21:18:53Z</time>
      </trkpt>
      <trkpt lat="35.105490" lon="-114.155210">
        <ele>787.070</ele>
        <time>2018-12-27T21:19:13Z</time>
      </trkpt>
      <trkpt lat="35.105360" lon="-114.155420">
        <ele>786.630</ele>
        <time>2018-12-27T21:19:33Z</time>
      </trkpt>
      <trkpt lat="35.105220" lon="-114.155640">
        <ele>786.248</ele>
        <time>2018-12-27T21:19:53Z</time>
      </trkpt>
      <trkpt lat="35.105150" lon="-114.155760">
        <ele>786.061</ele>
        <time>2018-12-27T21:20:13Z</time>
      </trkpt>
      <trkpt lat="35.105030" lon="-114.155970">
        <ele>785.617</ele>
        <time>2018-12-27T21:20:33Z</time>
      </trkpt>
      <trkpt lat="35.104970" lon="-114.156090">
        <ele>785.408</ele>
        <time>2018-12-27T21:20:53Z</time>
      </trkpt>
      <trkpt lat="35.104850" lon="-114.156300">
        <ele>784.937</ele>
        <time>2018-12-27T21:21:13Z</time>
      </trkpt>
      <trkpt lat="35.104790" lon="-114.156410">
        <ele>784.725</ele>
        <time>2018-12-27T21:21:33Z</time>
      </trkpt>
      <trkpt lat="35.104670" lon="-114.156640">
        <ele>784.290</ele>
        <time>2018-12-27T21:21:53Z</time>
      </trkpt>
      <trkpt lat="35.104380" lon="-114.157200">
        <ele>783.331</ele>
        <time>2018-12-27T21:22:13Z</time>
      </trkpt>
      <trkpt lat="35.104170" lon="-114.157630">
        <ele>782.776</ele>
        <time>2018-12-27T21:22:33Z</time>
      </trkpt>
      <trkpt lat="35.103800" lon="-114.158390">
        <ele>781.627</ele>
        <time>2018-12-27T21:22:53Z</time>
      </trkpt>
      <trkpt lat="35.103210" lon="-114.159580">
        <ele>779.660</ele>
        <time>2018-12-27T21:23:13Z</time>
      </trkpt>
      <trkpt lat="35.102700" lon="-114.160600">
        <ele>777.570</ele>
        <time>2018-12-27T21:23:33Z</time>
      </trkpt>
      <trkpt lat="35.102090" lon="-114.161800">
        <ele>775.848</ele>
        <time>2018-12-27T21:23:53Z</time>
      </trkpt>
      <trkpt lat="35.101490" lon="-114.162980">
        <ele>773.761</ele>
        <time>2018-12-27T21:24:13Z</time>
      </trkpt>
      <trkpt lat="35.101070" lon="-114.163810">
        <ele>771.717</ele>
        <time>2018-12-27T21:24:33Z</time>
      </trkpt>
      <trkpt lat="35.100850" lon="-114.164240">
        <ele>770.808</ele>
        <time>2018-12-27T21:24:53Z</time>
      </trkpt>
      <trkpt lat="35.100780" lon="-114.164360">
        <ele>770.637</ele>
        <time>2018-12-27T21:25:13Z</time>
      </trkpt>
      <trkpt lat="35.100730" lon="-114.164460">
        <ele>770.455</ele>
        <time>2018-12-27T21:25:33Z</time>
      </trkpt>
      <trkpt lat="35.100660" lon="-114.164570">
        <ele>770.360</ele>
        <time>2018-12-27T21:25:53Z</time>
      </trkpt>
      <trkpt lat="35.100590" lon="-114.164670">
        <ele>770.131</ele>
        <time>2018-12-27T21:26:13Z</time>
      </trkpt>
      <trkpt lat="35.100520" lon="-114.164780">
        <ele>769.996</ele>
        <time>2018-12-27T21:26:33Z</time>
      </trkpt>
      <trkpt lat="35.100340" lon="-114.165000">
        <ele>769.657</ele>
        <time>2018-12-27T21:26:53Z</time>
      </trkpt>
      <trkpt lat="35.100210" lon="-114.165160">
        <ele>769.670</ele>
        <time>2018-12-27T21:27:13Z</time>
      </trkpt>
      <trkpt lat="35.099750" lon="-114.165710">
        <ele>769.280</ele>
        <time>2018-12-27T21:27:33Z</time>
      </trkpt>
      <trkpt lat="35.099620" lon="-114.165870">
        <ele>768.949</ele>
        <time>2018-12-27T21:27:53Z</time>
      </trkpt>
      <trkpt lat="35.099430" lon="-114.166100">
        <ele>768.302</ele>
        <time>2018-12-27T21:28:13Z</time>
      </trkpt>
      <trkpt lat="35.097970" lon="-114.167900">
        <ele>763.622</ele>
        <time>2018-12-27T21:28:33Z</time>
      </trkpt>
      <trkpt lat="35.097320" lon="-114.168690">
        <ele>762.908</ele>
        <time>2018-12-27T21:28:53Z</time>
      </trkpt>
      <trkpt lat="35.097080" lon="-114.168980">
        <ele>762.657</ele>
        <time>2018-12-27T21:29:13Z</time>
      </trkpt>
      <trkpt lat="35.096940" lon="-114.169180">
        <ele>762.155</ele>
        <time>2018-12-27T21:29:33Z</time>
      </trkpt>
      <trkpt lat="35.096800" lon="-114.169390">
        <ele>761.520</ele>
        <time>2018-12-27T21:29:53Z</time>
      </trkpt>
      <trkpt lat="35.096170" lon="-114.170450">
        <ele>758.951</ele>
        <time>2018-12-27T21:30:13Z</time>
      </trkpt>
      <trkpt lat="35.095850" lon="-114.171000">
        <ele>758.186</ele>
        <time>2018-12-27T21:30:33Z</time>
      </trkpt>
      <trkpt lat="35.094880" lon="-114.172640">
        <ele>756.057</ele>
        <time>2018-12-27T21:30:53Z</time>
      </trkpt>
      <trkpt lat="35.093370" lon="-114.175260">
        <ele>750.590</ele>
        <time>2018-12-27T21:31:13Z</time>
      </trkpt>
      <trkpt lat="35.092870" lon="-114.176120">
        <ele>748.950</ele>
        <time>2018-12-27T21:31:33Z</time>
      </trkpt>
      <trkpt lat="35.092580" lon="-114.176650">
        <ele>747.986</ele>
        <time>2018-12-27T21:31:53Z</time>
      </trkpt>
      <trkpt lat="35.092300" lon="-114.177190">
        <ele>746.860</ele>
        <time>2018-12-27T21:32:13Z</time>
      </trkpt>
      <trkpt lat="35.092050" lon="-114.177700">
        <ele>746.126</ele>
        <time>2018-12-27T21:32:33Z</time>
      </trkpt>
      <trkpt lat="35.091030" lon="-114.179730">
        <ele>742.608</ele>
        <time>2018-12-27T21:32:53Z</time>
      </trkpt>
      <trkpt lat="35.090610" lon="-114.180590">
        <ele>741.251</ele>
        <time>2018-12-27T21:33:13Z</time>
      </trkpt>
      <trkpt lat="35.090430" lon="-114.180960">
        <ele>740.779</ele>
        <time>2018-12-27T21:33:33Z</time>
      </trkpt>
      <trkpt lat="35.090330" lon="-114.181220">
        <ele>740.334</ele>
        <time>2018-12-27T21:33:53Z</time>
      </trkpt>
      <trkpt lat="35.090230" lon="-114.181480">
        <ele>739.965</ele>
        <time>2018-12-27T21:34:13Z</time>
      </trkpt>
      <trkpt lat="35.090160" lon="-114.181720">
        <ele>739.670</ele>
        <time>2018-12-27T21:34:33Z</time>
      </trkpt>
      <trkpt lat="35.090090" lon="-114.182020">
        <ele>739.321</ele>
        <time>2018-12-27T21:34:53Z</time>
      </trkpt>
      <trkpt lat="35.090040" lon="-114.182320">
        <ele>739.084</ele>
        <time>2018-12-27T21:35:13Z</time>
      </trkpt>
      <trkpt lat="35.089980" lon="-114.182680">
        <ele>738.684</ele>
        <time>2018-12-27T21:35:33Z</time>
      </trkpt>
      <trkpt lat="35.089880" lon="-114.183360">
        <ele>738.415</ele>
        <time>2018-12-27T21:35:53Z</time>
      </trkpt>
      <trkpt lat="35.089820" lon="-114.183670">
        <ele>738.365</ele>
        <time>2018-12-27T21:36:13Z</time>
      </trkpt>
      <trkpt lat="35.089800" lon="-114.183750">
        <ele>738.311</ele>
        <time>2018-12-27T21:36:33Z</time>
      </trkpt>
      <trkpt lat="35.089760" lon="-114.183900">
        <ele>738.308</ele>
        <time>2018-12-27T21:36:53Z</time>
      </trkpt>
      <trkpt lat="35.089710" lon="-114.184060">
        <ele>738.274</ele>
        <time>2018-12-27T21:37:13Z</time>
      </trkpt>
      <trkpt lat="35.089610" lon="-114.184340">
        <ele>737.712</ele>
        <time>2018-12-27T21:37:33Z</time>
      </trkpt>
      <trkpt lat="35.089570" lon="-114.184450">
        <ele>737.227</ele>
        <time>2018-12-27T21:37:53Z</time>
      </trkpt>
      <trkpt lat="35.089510" lon="-114.184580">
        <ele>736.778</ele>
        <time>2018-12-27T21:38:13Z</time>
      </trkpt>
      <trkpt lat="35.089390" lon="-114.184850">
        <ele>736.013</ele>
        <time>2018-12-27T21:38:33Z</time>
      </trkpt>
      <trkpt lat="35.089330" lon="-114.184980">
        <ele>735.874</ele>
        <time>2018-12-27T21:38:53Z</time>
      </trkpt>
      <trkpt lat="35.089260" lon="-114.185110">
        <ele>735.567</ele>
        <time>2018-12-27T21:39:13Z</time>
      </trkpt>
      <trkpt lat="35.089160" lon="-114.185280">
        <ele>735.267</ele>
        <time>2018-12-27T21:39:33Z</time>
      </trkpt>
      <trkpt lat="35.088810" lon="-114.185860">
        <ele>734.482</ele>
        <time>2018-12-27T21:39:53Z</time>
      </trkpt>
      <trkpt lat="35.086350" lon="-114.189840">
        <ele>728.643</ele>
        <time>2018-12-27T21:40:13Z</time>
      </trkpt>
      <trkpt lat="35.085430" lon="-114.191330">
        <ele>726.717</ele>
        <time>2018-12-27T21:40:33Z</time>
      </trkpt>
      <trkpt lat="35.085300" lon="-114.191520">
        <ele>726.508</ele>
        <time>2018-12-27T21:40:53Z</time>
      </trkpt>
      <trkpt lat="35.084960" lon="-114.192060">
        <ele>725.971</ele>
        <time>2018-12-27T21:41:13Z</time>
      </trkpt>
      <trkpt lat="35.084760" lon="-114.192400">
        <ele>725.289</ele>
        <time>2018-12-27T21:41:33Z</time>
      </trkpt>
      <trkpt lat="35.084560" lon="-114.192720">
        <ele>724.574</ele>
        <time>2018-12-27T21:41:53Z</time>
      </trkpt>
      <trkpt lat="35.084490" lon="-114.192850">
        <ele>724.245</ele>
        <time>2018-12-27T21:42:13Z</time>
      </trkpt>
      <trkpt lat="35.084400" lon="-114.192980">
        <ele>724.050</ele>
        <time>2018-12-27T21:42:33Z</time>
      </trkpt>
      <trkpt lat="35.084290" lon="-114.193170">
        <ele>723.791</ele>
        <time>2018-12-27T21:42:53Z</time>
      </trkpt>
      <trkpt lat="35.083470" lon="-114.194480">
        <ele>721.874</ele>
        <time>2018-12-27T21:43:13Z</time>
      </trkpt>
      <trkpt lat="35.082150" lon="-114.196620">
        <ele>719.974</ele>
        <time>2018-12-27T21:43:33Z</time>
      </trkpt>
      <trkpt lat="35.081650" lon="-114.197420">
        <ele>718.988</ele>
        <time>2018-12-27T21:43:53Z</time>
      </trkpt>
      <trkpt lat="35.079010" lon="-114.201680">
        <ele>713.524</ele>
        <time>2018-12-27T21:44:13Z</time>
      </trkpt>
      <trkpt lat="35.077580" lon="-114.203980">
        <ele>710.526</ele>
        <time>2018-12-27T21:44:33Z</time>
      </trkpt>
      <trkpt lat="35.075170" lon="-114.207870">
        <ele>705.908</ele>
        <time>2018-12-27T21:44:53Z</time>
      </trkpt>
      <trkpt lat="35.074380" lon="-114.209150">
        <ele>704.531</ele>
        <time>2018-12-27T21:45:13Z</time>
      </trkpt>
      <trkpt lat="35.073580" lon="-114.210440">
        <ele>702.959</ele>
        <time>2018-12-27T21:45:33Z</time>
      </trkpt>
      <trkpt lat="35.072030" lon="-114.212970">
        <ele>700.214</ele>
        <time>2018-12-27T21:45:53Z</time>
      </trkpt>
      <trkpt lat="35.070950" lon="-114.214710">
        <ele>698.075</ele>
        <time>2018-12-27T21:46:13Z</time>
      </trkpt>
      <trkpt lat="35.069510" lon="-114.217050">
        <ele>696.050</ele>
        <time>2018-12-27T21:46:33Z</time>
      </trkpt>
      <trkpt lat="35.069200" lon="-114.217540">
        <ele>695.621</ele>
        <time>2018-12-27T21:46:53Z</time>
      </trkpt>
      <trkpt lat="35.068730" lon="-114.218310">
        <ele>695.824</ele>
        <time>2018-12-27T21:47:13Z</time>
      </trkpt>
      <trkpt lat="35.068120" lon="-114.219300">
        <ele>695.834</ele>
        <time>2018-12-27T21:47:33Z</time>
      </trkpt>
      <trkpt lat="35.067010" lon="-114.221100">
        <ele>694.549</ele>
        <time>2018-12-27T21:47:53Z</time>
      </trkpt>
      <trkpt lat="35.066520" lon="-114.221880">
        <ele>693.902</ele>
        <time>2018-12-27T21:48:13Z</time>
      </trkpt>
      <trkpt lat="35.065390" lon="-114.223710">
        <ele>692.422</ele>
        <time>2018-12-27T21:48:33Z</time>
      </trkpt>
      <trkpt lat="35.064360" lon="-114.225380">
        <ele>691.408</ele>
        <time>2018-12-27T21:48:53Z</time>
      </trkpt>
      <trkpt lat="35.063900" lon="-114.226120">
        <ele>690.927</ele>
        <time>2018-12-27T21:49:13Z</time>
      </trkpt>
      <trkpt lat="35.063420" lon="-114.226910">
        <ele>690.495</ele>
        <time>2018-12-27T21:49:33Z</time>
      </trkpt>
      <trkpt lat="35.062940" lon="-114.227690">
        <ele>689.980</ele>
        <time>2018-12-27T21:49:53Z</time>
      </trkpt>
      <trkpt lat="35.062640" lon="-114.228160">
        <ele>689.871</ele>
        <time>2018-12-27T21:50:13Z</time>
      </trkpt>
      <trkpt lat="35.062170" lon="-114.228910">
        <ele>689.736</ele>
        <time>2018-12-27T21:50:33Z</time>
      </trkpt>
      <trkpt lat="35.061930" lon="-114.229300">
        <ele>689.857</ele>
        <time>2018-12-27T21:50:53Z</time>
      </trkpt>
      <trkpt lat="35.061770" lon="-114.229570">
        <ele>689.760</ele>
        <time>2018-12-27T21:51:13Z</time>
      </trkpt>
      <trkpt lat="35.061010" lon="-114.230790">
        <ele>689.530</ele>
        <time>2018-12-27T21:51:33Z</time>
      </trkpt>
      <trkpt lat="35.059700" lon="-114.232900">
        <ele>689.065</ele>
        <time>2018-12-27T21:51:53Z</time>
      </trkpt>
      <trkpt lat="35.058650" lon="-114.234590">
        <ele>689.568</ele>
        <time>2018-12-27T21:52:13Z</time>
      </trkpt>
      <trkpt lat="35.057970" lon="-114.235690">
        <ele>689.514</ele>
        <time>2018-12-27T21:52:33Z</time>
      </trkpt>
      <trkpt lat="35.057370" lon="-114.236650">
        <ele>689.608</ele>
        <time>2018-12-27T21:52:53Z</time>
      </trkpt>
      <trkpt lat="35.056940" lon="-114.237350">
        <ele>690.429</ele>
        <time>2018-12-27T21:53:13Z</time>
      </trkpt>
      <trkpt lat="35.056460" lon="-114.238110">
        <ele>690.957</ele>
        <time>2018-12-27T21:53:33Z</time>
      </trkpt>
      <trkpt lat="35.056050" lon="-114.238770">
        <ele>691.062</ele>
        <time>2018-12-27T21:53:53Z</time>
      </trkpt>
      <trkpt lat="35.054870" lon="-114.240670">
        <ele>691.243</ele>
        <time>2018-12-27T21:54:13Z</time>
      </trkpt>
      <trkpt lat="35.054710" lon="-114.240920">
        <ele>691.248</ele>
        <time>2018-12-27T21:54:33Z</time>
      </trkpt>
      <trkpt lat="35.054450" lon="-114.241340">
        <ele>691.339</ele>
        <time>2018-12-27T21:54:53Z</time>
      </trkpt>
      <trkpt lat="35.054340" lon="-114.241510">
        <ele>691.322</ele>
        <time>2018-12-27T21:55:13Z</time>
      </trkpt>
      <trkpt lat="35.051840" lon="-114.245540">
        <ele>692.042</ele>
        <time>2018-12-27T21:55:33Z</time>
      </trkpt>
      <trkpt lat="35.051330" lon="-114.246360">
        <ele>692.887</ele>
        <time>2018-12-27T21:55:53Z</time>
      </trkpt>
      <trkpt lat="35.050570" lon="-114.247570">
        <ele>694.042</ele>
        <time>2018-12-27T21:56:13Z</time>
      </trkpt>
      <trkpt lat="35.050410" lon="-114.247810">
        <ele>694.026</ele>
        <time>2018-12-27T21:56:33Z</time>
      </trkpt>
      <trkpt lat="35.050240" lon="-114.248070">
        <ele>694.208</ele>
        <time>2018-12-27T21:56:53Z</time>
      </trkpt>
      <trkpt lat="35.050080" lon="-114.248320">
        <ele>694.381</ele>
        <time>2018-12-27T21:57:13Z</time>
      </trkpt>
      <trkpt lat="35.049880" lon="-114.248580">
        <ele>694.419</ele>
        <time>2018-12-27T21:57:33Z</time>
      </trkpt>
      <trkpt lat="35.049760" lon="-114.248730">
        <ele>694.664</ele>
        <time>2018-12-27T21:57:53Z</time>
      </trkpt>
      <trkpt lat="35.049670" lon="-114.248840">
        <ele>694.685</ele>
        <time>2018-12-27T21:58:13Z</time>
      </trkpt>
      <trkpt lat="35.049510" lon="-114.249020">
        <ele>694.870</ele>
        <time>2018-12-27T21:58:33Z</time>
      </trkpt>
      <trkpt lat="35.049260" lon="-114.249270">
        <ele>694.811</ele>
        <time>2018-12-27T21:58:53Z</time>
      </trkpt>
      <trkpt lat="35.049100" lon="-114.249440">
        <ele>694.884</ele>
        <time>2018-12-27T21:59:13Z</time>
      </trkpt>
      <trkpt lat="35.048920" lon="-114.249600">
        <ele>694.854</ele>
        <time>2018-12-27T21:59:33Z</time>
      </trkpt>
      <trkpt lat="35.048780" lon="-114.249720">
        <ele>694.863</ele>
        <time>2018-12-27T21:59:53Z</time>
      </trkpt>
      <trkpt lat="35.048650" lon="-114.249830">
        <ele>694.944</ele>
        <time>2018-12-27T22:00:13Z</time>
      </trkpt>
      <trkpt lat="35.048450" lon="-114.249990">
        <ele>695.018</ele>
        <time>2018-12-27T22:00:33Z</time>
      </trkpt>
      <trkpt lat="35.048070" lon="-114.250260">
        <ele>695.208</ele>
        <time>2018-12-27T22:00:53Z</time>
      </trkpt>
      <trkpt lat="35.047640" lon="-114.250540">
        <ele>695.159</ele>
        <time>2018-12-27T22:01:13Z</time>
      </trkpt>
      <trkpt lat="35.047330" lon="-114.250740">
        <ele>695.127</ele>
        <time>2018-12-27T22:01:33Z</time>
      </trkpt>
      <trkpt lat="35.046390" lon="-114.251340">
        <ele>695.212</ele>
        <time>2018-12-27T22:01:53Z</time>
      </trkpt>
      <trkpt lat="35.045860" lon="-114.251690">
        <ele>696.273</ele>
        <time>2018-12-27T22:02:13Z</time>
      </trkpt>
      <trkpt lat="35.045580" lon="-114.251880">
        <ele>696.938</ele>
        <time>2018-12-27T22:02:33Z</time>
      </trkpt>
      <trkpt lat="35.045470" lon="-114.251960">
        <ele>697.299</ele>
        <time>2018-12-27T22:02:53Z</time>
      </trkpt>
      <trkpt lat="35.045300" lon="-114.252100">
        <ele>697.792</ele>
        <time>2018-12-27T22:03:13Z</time>
      </trkpt>
      <trkpt lat="35.045150" lon="-114.252240">
        <ele>698.132</ele>
        <time>2018-12-27T22:03:33Z</time>
      </trkpt>
      <trkpt lat="35.045050" lon="-114.252330">
        <ele>698.417</ele>
        <time>2018-12-27T22:03:53Z</time>
      </trkpt>
      <trkpt lat="35.044900" lon="-114.252470">
        <ele>698.887</ele>
        <time>2018-12-27T22:04:13Z</time>
      </trkpt>
      <trkpt lat="35.044750" lon="-114.252620">
        <ele>699.315</ele>
        <time>2018-12-27T22:04:33Z</time>
      </trkpt>
      <trkpt lat="35.044600" lon="-114.252780">
        <ele>699.708</ele>
        <time>2018-12-27T22:04:53Z</time>
      </trkpt>
      <trkpt lat="35.044460" lon="-114.252920">
        <ele>700.174</ele>
        <time>2018-12-27T22:05:13Z</time>
      </trkpt>
      <trkpt lat="35.044300" lon="-114.253110">
        <ele>700.632</ele>
        <time>2018-12-27T22:05:33Z</time>
      </trkpt>
      <trkpt lat="35.044130" lon="-114.253330">
        <ele>701.187</ele>
        <time>2018-12-27T22:05:53Z</time>
      </trkpt>
      <trkpt lat="35.043960" lon="-114.253560">
        <ele>701.788</ele>
        <time>2018-12-27T22:06:13Z</time>
      </trkpt>
      <trkpt lat="35.043720" lon="-114.253890">
        <ele>702.583</ele>
        <time>2018-12-27T22:06:33Z</time>
      </trkpt>
      <trkpt lat="35.043490" lon="-114.254250">
        <ele>703.354</ele>
        <time>2018-12-27T22:06:53Z</time>
      </trkpt>
      <trkpt lat="35.043220" lon="-114.254730">
        <ele>704.437</ele>
        <time>2018-12-27T22:07:13Z</time>
      </trkpt>
      <trkpt lat="35.042870" lon="-114.255390">
        <ele>705.987</ele>
        <time>2018-12-27T22:07:33Z</time>
      </trkpt>
      <trkpt lat="35.042540" lon="-114.256030">
        <ele>707.267</ele>
        <time>2018-12-27T22:07:53Z</time>
      </trkpt>
      <trkpt lat="35.042150" lon="-114.256780">
        <ele>709.081</ele>
        <time>2018-12-27T22:08:13Z</time>
      </trkpt>
      <trkpt lat="35.041740" lon="-114.257580">
        <ele>710.919</ele>
        <time>2018-12-27T22:08:33Z</time>
      </trkpt>
      <trkpt lat="35.039920" lon="-114.261080">
        <ele>718.208</ele>
        <time>2018-12-27T22:08:53Z</time>
      </trkpt>
      <trkpt lat="35.038780" lon="-114.263270">
        <ele>722.699</ele>
        <time>2018-12-27T22:09:13Z</time>
      </trkpt>
      <trkpt lat="35.037210" lon="-114.266260">
        <ele>732.967</ele>
        <time>2018-12-27T22:09:33Z</time>
      </trkpt>
      <trkpt lat="35.035110" lon="-114.270310">
        <ele>742.532</ele>
        <time>2018-12-27T22:09:53Z</time>
      </trkpt>
      <trkpt lat="35.034650" lon="-114.271200">
        <ele>744.873</ele>
        <time>2018-12-27T22:10:13Z</time>
      </trkpt>
      <trkpt lat="35.034170" lon="-114.272110">
        <ele>746.588</ele>
        <time>2018-12-27T22:10:33Z</time>
      </trkpt>
      <trkpt lat="35.033830" lon="-114.272760">
        <ele>747.779</ele>
        <time>2018-12-27T22:10:53Z</time>
      </trkpt>
      <trkpt lat="35.033610" lon="-114.273190">
        <ele>748.552</ele>
        <time>2018-12-27T22:11:13Z</time>
      </trkpt>
      <trkpt lat="35.033360" lon="-114.273680">
        <ele>749.732</ele>
        <time>2018-12-27T22:11:33Z</time>
      </trkpt>
      <trkpt lat="35.033130" lon="-114.274110">
        <ele>751.067</ele>
        <time>2018-12-27T22:11:53Z</time>
      </trkpt>
      <trkpt lat="35.032920" lon="-114.274510">
        <ele>752.481</ele>
        <time>2018-12-27T22:12:13Z</time>
      </trkpt>
      <trkpt lat="35.032770" lon="-114.274800">
        <ele>753.419</ele>
        <time>2018-12-27T22:12:33Z</time>
      </trkpt>
      <trkpt lat="35.032660" lon="-114.274980">
        <ele>754.108</ele>
        <time>2018-12-27T22:12:53Z</time>
      </trkpt>
      <trkpt lat="35.032540" lon="-114.275170">
        <ele>754.819</ele>
        <time>2018-12-27T22:13:13Z</time>
      </trkpt>
      <trkpt lat="35.032430" lon="-114.275330">
        <ele>755.337</ele>
        <time>2018-12-27T22:13:33Z</time>
      </trkpt>
      <trkpt lat="35.032300" lon="-114.275500">
        <ele>755.952</ele>
        <time>2018-12-27T22:13:53Z</time>
      </trkpt>
      <trkpt lat="35.032170" lon="-114.275670">
        <ele>756.333</ele>
        <time>2018-12-27T22:14:13Z</time>
      </trkpt>
      <trkpt lat="35.032030" lon="-114.275820">
        <ele>756.848</ele>
        <time>2018-12-27T22:14:33Z</time>
      </trkpt>
      <trkpt lat="35.031890" lon="-114.275960">
        <ele>757.359</ele>
        <time>2018-12-27T22:14:53Z</time>
      </trkpt>
      <trkpt lat="35.031740" lon="-114.276110">
        <ele>757.762</ele>
        <time>2018-12-27T22:15:13Z</time>
      </trkpt>
      <trkpt lat="35.031520" lon="-114.276280">
        <ele>757.912</ele>
        <time>2018-12-27T22:15:33Z</time>
      </trkpt>
      <trkpt lat="35.031240" lon="-114.276480">
        <ele>757.633</ele>
        <time>2018-12-27T22:15:53Z</time>
      </trkpt>
      <trkpt lat="35.031110" lon="-114.276560">
        <ele>757.323</ele>
        <time>2018-12-27T22:16:13Z</time>
      </trkpt>
      <trkpt lat="35.031040" lon="-114.276600">
        <ele>757.115</ele>
        <time>2018-12-27T22:16:33Z</time>
      </trkpt>
      <trkpt lat="35.030880" lon="-114.276680">
        <ele>756.508</ele>
        <time>2018-12-27T22:16:53Z</time>
      </trkpt>
      <trkpt lat="35.030270" lon="-114.276970">
        <ele>754.616</ele>
        <time>2018-12-27T22:17:13Z</time>
      </trkpt>
      <trkpt lat="35.030020" lon="-114.277080">
        <ele>753.734</ele>
        <time>2018-12-27T22:17:33Z</time>
      </trkpt>
      <trkpt lat="35.029600" lon="-114.277260">
        <ele>753.659</ele>
        <time>2018-12-27T22:17:53Z</time>
      </trkpt>
      <trkpt lat="35.029110" lon="-114.277490">
        <ele>756.850</ele>
        <time>2018-12-27T22:18:13Z</time>
      </trkpt>
      <trkpt lat="35.028900" lon="-114.277590">
        <ele>757.415</ele>
        <time>2018-12-27T22:18:33Z</time>
      </trkpt>
      <trkpt lat="35.028760" lon="-114.277680">
        <ele>757.846</ele>
        <time>2018-12-27T22:18:53Z</time>
      </trkpt>
      <trkpt lat="35.028530" lon="-114.277820">
        <ele>758.139</ele>
        <time>2018-12-27T22:19:13Z</time>
      </trkpt>
      <trkpt lat="35.028280" lon="-114.278020">
        <ele>758.539</ele>
        <time>2018-12-27T22:19:33Z</time>
      </trkpt>
      <trkpt lat="35.028210" lon="-114.278080">
        <ele>758.596</ele>
        <time>2018-12-27T22:19:53Z</time>
      </trkpt>
      <trkpt lat="35.028110" lon="-114.278170">
        <ele>758.731</ele>
        <time>2018-12-27T22:20:13Z</time>
      </trkpt>
      <trkpt lat="35.028010" lon="-114.278280">
        <ele>758.824</ele>
        <time>2018-12-27T22:20:33Z</time>
      </trkpt>
      <trkpt lat="35.027910" lon="-114.278390">
        <ele>758.908</ele>
        <time>2018-12-27T22:20:53Z</time>
      </trkpt>
      <trkpt lat="35.027820" lon="-114.278500">
        <ele>759.082</ele>
        <time>2018-12-27T22:21:13Z</time>
      </trkpt>
      <trkpt lat="35.027750" lon="-114.278600">
        <ele>759.020</ele>
        <time>2018-12-27T22:21:33Z</time>
      </trkpt>
      <trkpt lat="35.027660" lon="-114.278720">
        <ele>759.195</ele>
        <time>2018-12-27T22:21:53Z</time>
      </trkpt>
      <trkpt lat="35.027560" lon="-114.278870">
        <ele>759.236</ele>
        <time>2018-12-27T22:22:13Z</time>
      </trkpt>
      <trkpt lat="35.027470" lon="-114.279020">
        <ele>759.241</ele>
        <time>2018-12-27T22:22:33Z</time>
      </trkpt>
      <trkpt lat="35.027390" lon="-114.279160">
        <ele>759.282</ele>
        <time>2018-12-27T22:22:53Z</time>
      </trkpt>
      <trkpt lat="35.027330" lon="-114.279290">
        <ele>759.215</ele>
        <time>2018-12-27T22:23:13Z</time>
      </trkpt>
      <trkpt lat="35.027270" lon="-114.279420">
        <ele>759.225</ele>
        <time>2018-12-27T22:23:33Z</time>
      </trkpt>
      <trkpt lat="35.027210" lon="-114.279580">
        <ele>759.332</ele>
        <time>2018-12-27T22:23:53Z</time>
      </trkpt>
      <trkpt lat="35.027150" lon="-114.279780">
        <ele>759.592</ele>
        <time>2018-12-27T22:24:13Z</time>
      </trkpt>
      <trkpt lat="35.027090" lon="-114.280000">
        <ele>759.811</ele>
        <time>2018-12-27T22:24:33Z</time>
      </trkpt>
      <trkpt lat="35.027020" lon="-114.280280">
        <ele>760.308</ele>
        <time>2018-12-27T22:24:53Z</time>
      </trkpt>
      <trkpt lat="35.026980" lon="-114.280500">
        <ele>760.956</ele>
        <time>2018-12-27T22:25:13Z</time>
      </trkpt>
      <trkpt lat="35.026950" lon="-114.280740">
        <ele>761.574</ele>
        <time>2018-12-27T22:25:33Z</time>
      </trkpt>
      <trkpt lat="35.026910" lon="-114.281190">
        <ele>763.039</ele>
        <time>2018-12-27T22:25:53Z</time>
      </trkpt>
      <trkpt lat="35.026820" lon="-114.282270">
        <ele>767.260</ele>
        <time>2018-12-27T22:26:13Z</time>
      </trkpt>
      <trkpt lat="35.026750" lon="-114.283220">
        <ele>769.665</ele>
        <time>2018-12-27T22:26:33Z</time>
      </trkpt>
      <trkpt lat="35.026700" lon="-114.284010">
        <ele>770.486</ele>
        <time>2018-12-27T22:26:53Z</time>
      </trkpt>
      <trkpt lat="35.026640" lon="-114.284810">
        <ele>771.999</ele>
        <time>2018-12-27T22:27:13Z</time>
      </trkpt>
      <trkpt lat="35.026590" lon="-114.285620">
        <ele>774.569</ele>
        <time>2018-12-27T22:27:33Z</time>
      </trkpt>
      <trkpt lat="35.026510" lon="-114.286690">
        <ele>778.397</ele>
        <time>2018-12-27T22:27:53Z</time>
      </trkpt>
      <trkpt lat="35.026410" lon="-114.288140">
        <ele>782.023</ele>
        <time>2018-12-27T22:28:13Z</time>
      </trkpt>
      <trkpt lat="35.025920" lon="-114.294460">
        <ele>794.725</ele>
        <time>2018-12-27T22:28:33Z</time>
      </trkpt>
      <trkpt lat="35.025810" lon="-114.295940">
        <ele>794.508</ele>
        <time>2018-12-27T22:28:53Z</time>
      </trkpt>
      <trkpt lat="35.025630" lon="-114.298300">
        <ele>800.492</ele>
        <time>2018-12-27T22:29:13Z</time>
      </trkpt>
      <trkpt lat="35.025530" lon="-114.299540">
        <ele>806.640</ele>
        <time>2018-12-27T22:29:33Z</time>
      </trkpt>
      <trkpt lat="35.025500" lon="-114.299940">
        <ele>807.395</ele>
        <time>2018-12-27T22:29:53Z</time>
      </trkpt>
      <trkpt lat="35.025450" lon="-114.300630">
        <ele>808.546</ele>
        <time>2018-12-27T22:30:13Z</time>
      </trkpt>
      <trkpt lat="35.025420" lon="-114.301040">
        <ele>809.291</ele>
        <time>2018-12-27T22:30:33Z</time>
      </trkpt>
      <trkpt lat="35.025370" lon="-114.301660">
        <ele>810.322</ele>
        <time>2018-12-27T22:30:53Z</time>
      </trkpt>
      <trkpt lat="35.025330" lon="-114.302190">
        <ele>811.465</ele>
        <time>2018-12-27T22:31:13Z</time>
      </trkpt>
      <trkpt lat="35.025310" lon="-114.302640">
        <ele>812.725</ele>
        <time>2018-12-27T22:31:33Z</time>
      </trkpt>
      <trkpt lat="35.025300" lon="-114.302890">
        <ele>813.697</ele>
        <time>2018-12-27T22:31:53Z</time>
      </trkpt>
      <trkpt lat="35.025300" lon="-114.303140">
        <ele>814.523</ele>
        <time>2018-12-27T22:32:13Z</time>
      </trkpt>
      <trkpt lat="35.025320" lon="-114.303370">
        <ele>815.825</ele>
        <time>2018-12-27T22:32:33Z</time>
      </trkpt>
      <trkpt lat="35.025350" lon="-114.303730">
        <ele>817.508</ele>
        <time>2018-12-27T22:32:53Z</time>
      </trkpt>
      <trkpt lat="35.025370" lon="-114.303910">
        <ele>817.962</ele>
        <time>2018-12-27T22:33:13Z</time>
      </trkpt>
      <trkpt lat="35.025410" lon="-114.304120">
        <ele>818.310</ele>
        <time>2018-12-27T22:33:33Z</time>
      </trkpt>
      <trkpt lat="35.025440" lon="-114.304230">
        <ele>818.425</ele>
        <time>2018-12-27T22:33:53Z</time>
      </trkpt>
      <trkpt lat="35.025470" lon="-114.304370">
        <ele>818.576</ele>
        <time>2018-12-27T22:34:13Z</time>
      </trkpt>
      <trkpt lat="35.025510" lon="-114.304520">
        <ele>818.651</ele>
        <time>2018-12-27T22:34:33Z</time>
      </trkpt>
      <trkpt lat="35.025580" lon="-114.304740">
        <ele>818.822</ele>
        <time>2018-12-27T22:34:53Z</time>
      </trkpt>
      <trkpt lat="35.025720" lon="-114.305140">
        <ele>819.165</ele>
        <time>2018-12-27T22:35:13Z</time>
      </trkpt>
      <trkpt lat="35.025960" lon="-114.305720">
        <ele>819.195</ele>
        <time>2018-12-27T22:35:33Z</time>
      </trkpt>
      <trkpt lat="35.026250" lon="-114.306420">
        <ele>819.398</ele>
        <time>2018-12-27T22:35:53Z</time>
      </trkpt>
      <trkpt lat="35.026670" lon="-114.307400">
        <ele>820.415</ele>
        <time>2018-12-27T22:36:13Z</time>
      </trkpt>
      <trkpt lat="35.026870" lon="-114.307850">
        <ele>821.026</ele>
        <time>2018-12-27T22:36:33Z</time>
      </trkpt>
      <trkpt lat="35.027150" lon="-114.308490">
        <ele>822.408</ele>
        <time>2018-12-27T22:36:53Z</time>
      </trkpt>
      <trkpt lat="35.027240" lon="-114.308720">
        <ele>822.982</ele>
        <time>2018-12-27T22:37:13Z</time>
      </trkpt>
      <trkpt lat="35.027300" lon="-114.308870">
        <ele>823.260</ele>
        <time>2018-12-27T22:37:33Z</time>
      </trkpt>
      <trkpt lat="35.027340" lon="-114.309010">
        <ele>823.615</ele>
        <time>2018-12-27T22:37:53Z</time>
      </trkpt>
      <trkpt lat="35.027370" lon="-114.309140">
        <ele>824.146</ele>
        <time>2018-12-27T22:38:13Z</time>
      </trkpt>
      <trkpt lat="35.027400" lon="-114.309340">
        <ele>825.081</ele>
        <time>2018-12-27T22:38:33Z</time>
      </trkpt>
      <trkpt lat="35.027440" lon="-114.309520">
        <ele>825.852</ele>
        <time>2018-12-27T22:38:53Z</time>
      </trkpt>
      <trkpt lat="35.027470" lon="-114.309710">
        <ele>827.165</ele>
        <time>2018-12-27T22:39:13Z</time>
      </trkpt>
      <trkpt lat="35.027520" lon="-114.309930">
        <ele>829.415</ele>
        <time>2018-12-27T22:39:33Z</time>
      </trkpt>
      <trkpt lat="35.027570" lon="-114.310080">
        <ele>831.554</ele>
        <time>2018-12-27T22:39:53Z</time>
      </trkpt>
      <trkpt lat="35.027620" lon="-114.310180">
        <ele>833.056</ele>
        <time>2018-12-27T22:40:13Z</time>
      </trkpt>
      <trkpt lat="35.027660" lon="-114.310280">
        <ele>834.511</ele>
        <time>2018-12-27T22:40:33Z</time>
      </trkpt>
      <trkpt lat="35.027770" lon="-114.310430">
        <ele>835.508</ele>
        <time>2018-12-27T22:40:53Z</time>
      </trkpt>
      <trkpt lat="35.027840" lon="-114.310500">
        <ele>835.618</ele>
        <time>2018-12-27T22:41:13Z</time>
      </trkpt>
      <trkpt lat="35.027970" lon="-114.310620">
        <ele>835.266</ele>
        <time>2018-12-27T22:41:33Z</time>
      </trkpt>
      <trkpt lat="35.028070" lon="-114.310720">
        <ele>834.881</ele>
        <time>2018-12-27T22:41:53Z</time>
      </trkpt>
      <trkpt lat="35.028180" lon="-114.310850">
        <ele>834.342</ele>
        <time>2018-12-27T22:42:13Z</time>
      </trkpt>
      <trkpt lat="35.028250" lon="-114.310970">
        <ele>834.187</ele>
        <time>2018-12-27T22:42:33Z</time>
      </trkpt>
      <trkpt lat="35.028370" lon="-114.311170">
        <ele>834.118</ele>
        <time>2018-12-27T22:42:53Z</time>
      </trkpt>
      <trkpt lat="35.028460" lon="-114.311350">
        <ele>834.741</ele>
        <time>2018-12-27T22:43:13Z</time>
      </trkpt>
      <trkpt lat="35.028500" lon="-114.311430">
        <ele>834.491</ele>
        <time>2018-12-27T22:43:33Z</time>
      </trkpt>
      <trkpt lat="35.028540" lon="-114.311550">
        <ele>834.755</ele>
        <time>2018-12-27T22:43:53Z</time>
      </trkpt>
      <trkpt lat="35.028610" lon="-114.311810">
        <ele>835.507</ele>
        <time>2018-12-27T22:44:13Z</time>
      </trkpt>
      <trkpt lat="35.028720" lon="-114.312250">
        <ele>836.017</ele>
        <time>2018-12-27T22:44:33Z</time>
      </trkpt>
      <trkpt lat="35.028790" lon="-114.312600">
        <ele>837.108</ele>
        <time>2018-12-27T22:44:53Z</time>
      </trkpt>
      <trkpt lat="35.028850" lon="-114.312810">
        <ele>838.018</ele>
        <time>2018-12-27T22:45:13Z</time>
      </trkpt>
      <trkpt lat="35.028900" lon="-114.312950">
        <ele>838.546</ele>
        <time>2018-12-27T22:45:33Z</time>
      </trkpt>
      <trkpt lat="35.029020" lon="-114.313220">
        <ele>837.871</ele>
        <time>2018-12-27T22:45:53Z</time>
      </trkpt>
      <trkpt lat="35.029140" lon="-114.313530">
        <ele>837.362</ele>
        <time>2018-12-27T22:46:13Z</time>
      </trkpt>
      <trkpt lat="35.029280" lon="-114.313870">
        <ele>836.967</ele>
        <time>2018-12-27T22:46:33Z</time>
      </trkpt>
      <trkpt lat="35.029320" lon="-114.314000">
        <ele>837.178</ele>
        <time>2018-12-27T22:46:53Z</time>
      </trkpt>
      <trkpt lat="35.029360" lon="-114.314150">
        <ele>837.471</ele>
        <time>2018-12-27T22:47:13Z</time>
      </trkpt>
      <trkpt lat="35.029390" lon="-114.314350">
        <ele>838.021</ele>
        <time>2018-12-27T22:47:33Z</time>
      </trkpt>
      <trkpt lat="35.029420" lon="-114.314520">
        <ele>838.213</ele>
        <time>2018-12-27T22:47:53Z</time>
      </trkpt>
      <trkpt lat="35.029460" lon="-114.314680">
        <ele>838.243</ele>
        <time>2018-12-27T22:48:13Z</time>
      </trkpt>
      <trkpt lat="35.029490" lon="-114.314820">
        <ele>838.307</ele>
        <time>2018-12-27T22:48:33Z</time>
      </trkpt>
      <trkpt lat="35.029570" lon="-114.315090">
        <ele>838.308</ele>
        <time>2018-12-27T22:48:53Z</time>
      </trkpt>
      <trkpt lat="35.029680" lon="-114.315430">
        <ele>838.144</ele>
        <time>2018-12-27T22:49:13Z</time>
      </trkpt>
      <trkpt lat="35.029760" lon="-114.315650">
        <ele>838.462</ele>
        <time>2018-12-27T22:49:33Z</time>
      </trkpt>
      <trkpt lat="35.029900" lon="-114.315980">
        <ele>838.117</ele>
        <time>2018-12-27T22:49:53Z</time>
      </trkpt>
      <trkpt lat="35.029980" lon="-114.316180">
        <ele>837.728</ele>
        <time>2018-12-27T22:50:13Z</time>
      </trkpt>
      <trkpt lat="35.030010" lon="-114.316280">
        <ele>837.753</ele>
        <time>2018-12-27T22:50:33Z</time>
      </trkpt>
      <trkpt lat="35.030040" lon="-114.316370">
        <ele>837.894</ele>
        <time>2018-12-27T22:50:53Z</time>
      </trkpt>
      <trkpt lat="35.030140" lon="-114.316740">
        <ele>839.137</ele>
        <time>2018-12-27T22:51:13Z</time>
      </trkpt>
      <trkpt lat="35.030250" lon="-114.317130">
        <ele>840.017</ele>
        <time>2018-12-27T22:51:33Z</time>
      </trkpt>
      <trkpt lat="35.030320" lon="-114.317420">
        <ele>840.411</ele>
        <time>2018-12-27T22:51:53Z</time>
      </trkpt>
      <trkpt lat="35.030420" lon="-114.317780">
        <ele>840.521</ele>
        <time>2018-12-27T22:52:13Z</time>
      </trkpt>
      <trkpt lat="35.030490" lon="-114.318060">
        <ele>841.303</ele>
        <time>2018-12-27T22:52:33Z</time>
      </trkpt>
      <trkpt lat="35.030560" lon="-114.318330">
        <ele>843.208</ele>
        <time>2018-12-27T22:52:53Z</time>
      </trkpt>
      <trkpt lat="35.030590" lon="-114.318470">
        <ele>844.234</ele>
        <time>2018-12-27T22:53:13Z</time>
      </trkpt>
      <trkpt lat="35.030610" lon="-114.318580">
        <ele>845.012</ele>
        <time>2018-12-27T22:53:33Z</time>
      </trkpt>
      <trkpt lat="35.030630" lon="-114.318680">
        <ele>845.797</ele>
        <time>2018-12-27T22:53:53Z</time>
      </trkpt>
      <trkpt lat="35.030640" lon="-114.318760">
        <ele>846.288</ele>
        <time>2018-12-27T22:54:13Z</time>
      </trkpt>
      <trkpt lat="35.030640" lon="-114.318860">
        <ele>847.013</ele>
        <time>2018-12-27T22:54:33Z</time>
      </trkpt>
      <trkpt lat="35.030620" lon="-114.318980">
        <ele>847.964</ele>
        <time>2018-12-27T22:54:53Z</time>
      </trkpt>
      <trkpt lat="35.030600" lon="-114.319110">
        <ele>848.997</ele>
        <time>2018-12-27T22:55:13Z</time>
      </trkpt>
      <trkpt lat="35.030570" lon="-114.319250">
        <ele>849.997</ele>
        <time>2018-12-27T22:55:33Z</time>
      </trkpt>
      <trkpt lat="35.030550" lon="-114.319420">
        <ele>851.015</ele>
        <time>2018-12-27T22:55:53Z</time>
      </trkpt>
      <trkpt lat="35.030540" lon="-114.319520">
        <ele>851.665</ele>
        <time>2018-12-27T22:56:13Z</time>
      </trkpt>
      <trkpt lat="35.030540" lon="-114.319660">
        <ele>852.211</ele>
        <time>2018-12-27T22:56:33Z</time>
      </trkpt>
      <trkpt lat="35.030560" lon="-114.319820">
        <ele>852.608</ele>
        <time>2018-12-27T22:56:53Z</time>
      </trkpt>
      <trkpt lat="35.030580" lon="-114.320030">
        <ele>852.954</ele>
        <time>2018-12-27T22:57:13Z</time>
      </trkpt>
      <trkpt lat="35.030600" lon="-114.320180">
        <ele>853.342</ele>
        <time>2018-12-27T22:57:33Z</time>
      </trkpt>
      <trkpt lat="35.030620" lon="-114.320280">
        <ele>853.677</ele>
        <time>2018-12-27T22:57:53Z</time>
      </trkpt>
      <trkpt lat="35.030650" lon="-114.320350">
        <ele>853.518</ele>
        <time>2018-12-27T22:58:13Z</time>
      </trkpt>
      <trkpt lat="35.030680" lon="-114.320420">
        <ele>853.463</ele>
        <time>2018-12-27T22:58:33Z</time>
      </trkpt>
      <trkpt lat="35.030710" lon="-114.320460">
        <ele>853.464</ele>
        <time>2018-12-27T22:58:53Z</time>
      </trkpt>
      <trkpt lat="35.030740" lon="-114.320490">
        <ele>853.737</ele>
        <time>2018-12-27T22:59:13Z</time>
      </trkpt>
      <trkpt lat="35.030790" lon="-114.320520">
        <ele>854.187</ele>
        <time>2018-12-27T22:59:33Z</time>
      </trkpt>
      <trkpt lat="35.030840" lon="-114.320530">
        <ele>854.438</ele>
        <time>2018-12-27T22:59:53Z</time>
      </trkpt>
      <trkpt lat="35.030880" lon="-114.320540">
        <ele>854.770</ele>
        <time>2018-12-27T23:00:13Z</time>
      </trkpt>
      <trkpt lat="35.030920" lon="-114.320540">
        <ele>854.917</ele>
        <time>2018-12-27T23:00:33Z</time>
      </trkpt>
      <trkpt lat="35.030980" lon="-114.320520">
        <ele>855.008</ele>
        <time>2018-12-27T23:00:53Z</time>
      </trkpt>
      <trkpt lat="35.031040" lon="-114.320490">
        <ele>856.346</ele>
        <time>2018-12-27T23:01:13Z</time>
      </trkpt>
      <trkpt lat="35.031120" lon="-114.320450">
        <ele>858.014</ele>
        <time>2018-12-27T23:01:33Z</time>
      </trkpt>
      <trkpt lat="35.031240" lon="-114.320370">
        <ele>860.279</ele>
        <time>2018-12-27T23:01:53Z</time>
      </trkpt>
      <trkpt lat="35.031330" lon="-114.320320">
        <ele>860.020</ele>
        <time>2018-12-27T23:02:13Z</time>
      </trkpt>
      <trkpt lat="35.031390" lon="-114.320300">
        <ele>859.865</ele>
        <time>2018-12-27T23:02:33Z</time>
      </trkpt>
      <trkpt lat="35.031440" lon="-114.320290">
        <ele>859.856</ele>
        <time>2018-12-27T23:02:53Z</time>
      </trkpt>
      <trkpt lat="35.031500" lon="-114.320300">
        <ele>860.249</ele>
        <time>2018-12-27T23:03:13Z</time>
      </trkpt>
      <trkpt lat="35.031550" lon="-114.320320">
        <ele>859.979</ele>
        <time>2018-12-27T23:03:33Z</time>
      </trkpt>
      <trkpt lat="35.031610" lon="-114.320370">
        <ele>859.121</ele>
        <time>2018-12-27T23:03:53Z</time>
      </trkpt>
      <trkpt lat="35.031640" lon="-114.320410">
        <ele>859.441</ele>
        <time>2018-12-27T23:04:13Z</time>
      </trkpt>
      <trkpt lat="35.031690" lon="-114.320470">
        <ele>859.405</ele>
        <time>2018-12-27T23:04:33Z</time>
      </trkpt>
      <trkpt lat="35.031790" lon="-114.320680">
        <ele>860.608</ele>
        <time>2018-12-27T23:04:53Z</time>
      </trkpt>
      <trkpt lat="35.031870" lon="-114.320840">
        <ele>859.285</ele>
        <time>2018-12-27T23:05:13Z</time>
      </trkpt>
      <trkpt lat="35.031930" lon="-114.320980">
        <ele>859.493</ele>
        <time>2018-12-27T23:05:33Z</time>
      </trkpt>
      <trkpt lat="35.031960" lon="-114.321090">
        <ele>859.748</ele>
        <time>2018-12-27T23:05:53Z</time>
      </trkpt>
      <trkpt lat="35.031970" lon="-114.321140">
        <ele>859.949</ele>
        <time>2018-12-27T23:06:13Z</time>
      </trkpt>
      <trkpt lat="35.032020" lon="-114.321390">
        <ele>861.044</ele>
        <time>2018-12-27T23:06:33Z</time>
      </trkpt>
      <trkpt lat="35.032070" lon="-114.321690">
        <ele>860.945</ele>
        <time>2018-12-27T23:06:53Z</time>
      </trkpt>
      <trkpt lat="35.032070" lon="-114.321750">
        <ele>860.918</ele>
        <time>2018-12-27T23:07:13Z</time>
      </trkpt>
      <trkpt lat="35.032080" lon="-114.321830">
        <ele>860.518</ele>
        <time>2018-12-27T23:07:33Z</time>
      </trkpt>
      <trkpt lat="35.032080" lon="-114.321920">
        <ele>859.916</ele>
        <time>2018-12-27T23:07:53Z</time>
      </trkpt>
      <trkpt lat="35.032070" lon="-114.322020">
        <ele>859.576</ele>
        <time>2018-12-27T23:08:13Z</time>
      </trkpt>
      <trkpt lat="35.032060" lon="-114.322110">
        <ele>858.913</ele>
        <time>2018-12-27T23:08:33Z</time>
      </trkpt>
      <trkpt lat="35.032050" lon="-114.322190">
        <ele>857.908</ele>
        <time>2018-12-27T23:08:53Z</time>
      </trkpt>
      <trkpt lat="35.032010" lon="-114.322340">
        <ele>856.184</ele>
        <time>2018-12-27T23:09:13Z</time>
      </trkpt>
      <trkpt lat="35.032000" lon="-114.322410">
        <ele>855.272</ele>
        <time>2018-12-27T23:09:33Z</time>
      </trkpt>
      <trkpt lat="35.031960" lon="-114.322550">
        <ele>853.947</ele>
        <time>2018-12-27T23:09:53Z</time>
      </trkpt>
      <trkpt lat="35.031930" lon="-114.322680">
        <ele>852.938</ele>
        <time>2018-12-27T23:10:13Z</time>
      </trkpt>
      <trkpt lat="35.031910" lon="-114.322810">
        <ele>852.513</ele>
        <time>2018-12-27T23:10:33Z</time>
      </trkpt>
      <trkpt lat="35.031900" lon="-114.322890">
        <ele>852.284</ele>
        <time>2018-12-27T23:10:53Z</time>
      </trkpt>
      <trkpt lat="35.031890" lon="-114.322940">
        <ele>852.287</ele>
        <time>2018-12-27T23:11:13Z</time>
      </trkpt>
      <trkpt lat="35.031900" lon="-114.323020">
        <ele>851.937</ele>
        <time>2018-12-27T23:11:33Z</time>
      </trkpt>
      <trkpt lat="35.031910" lon="-114.323080">
        <ele>851.673</ele>
        <time>2018-12-27T23:11:53Z</time>
      </trkpt>
      <trkpt lat="35.031930" lon="-114.323140">
        <ele>851.285</ele>
        <time>2018-12-27T23:12:13Z</time>
      </trkpt>
      <trkpt lat="35.031960" lon="-114.323190">
        <ele>850.813</ele>
        <time>2018-12-27T23:12:33Z</time>
      </trkpt>
      <trkpt lat="35.032000" lon="-114.323250">
        <ele>850.608</ele>
        <time>2018-12-27T23:12:53Z</time>
      </trkpt>
      <trkpt lat="35.032070" lon="-114.323330">
        <ele>850.240</ele>
        <time>2018-12-27T23:13:13Z</time>
      </trkpt>
      <trkpt lat="35.032130" lon="-114.323380">
        <ele>849.758</ele>
        <time>2018-12-27T23:13:33Z</time>
      </trkpt>
      <trkpt lat="35.032270" lon="-114.323480">
        <ele>848.363</ele>
        <time>2018-12-27T23:13:53Z</time>
      </trkpt>
      <trkpt lat="35.032390" lon="-114.323570">
        <ele>847.114</ele>
        <time>2018-12-27T23:14:13Z</time>
      </trkpt>
      <trkpt lat="35.032450" lon="-114.323610">
        <ele>846.789</ele>
        <time>2018-12-27T23:14:33Z</time>
      </trkpt>
      <trkpt lat="35.032540" lon="-114.323660">
        <ele>846.120</ele>
        <time>2018-12-27T23:14:53Z</time>
      </trkpt>
      <trkpt lat="35.032690" lon="-114.323770">
        <ele>845.883</ele>
        <time>2018-12-27T23:15:13Z</time>
      </trkpt>
      <trkpt lat="35.032730" lon="-114.323800">
        <ele>845.943</ele>
        <time>2018-12-27T23:15:33Z</time>
      </trkpt>
      <trkpt lat="35.032790" lon="-114.323860">
        <ele>846.133</ele>
        <time>2018-12-27T23:15:53Z</time>
      </trkpt>
      <trkpt lat="35.032830" lon="-114.323900">
        <ele>846.223</ele>
        <time>2018-12-27T23:16:13Z</time>
      </trkpt>
      <trkpt lat="35.032860" lon="-114.323950">
        <ele>846.415</ele>
        <time>2018-12-27T23:16:33Z</time>
      </trkpt>
      <trkpt lat="35.032890" lon="-114.324020">
        <ele>846.708</ele>
        <time>2018-12-27T23:16:53Z</time>
      </trkpt>
      <trkpt lat="35.032910" lon="-114.324080">
        <ele>846.956</ele>
        <time>2018-12-27T23:17:13Z</time>
      </trkpt>
      <trkpt lat="35.032920" lon="-114.324160">
        <ele>847.234</ele>
        <time>2018-12-27T23:17:33Z</time>
      </trkpt>
      <trkpt lat="35.032930" lon="-114.324250">
        <ele>847.559</ele>
        <time>2018-12-27T23:17:53Z</time>
      </trkpt>
      <trkpt lat="35.032920" lon="-114.324320">
        <ele>847.750</ele>
        <time>2018-12-27T23:18:13Z</time>
      </trkpt>
      <trkpt lat="35.032910" lon="-114.324430">
        <ele>848.195</ele>
        <time>2018-12-27T23:18:33Z</time>
      </trkpt>
      <trkpt lat="35.032900" lon="-114.324520">
        <ele>848.426</ele>
        <time>2018-12-27T23:18:53Z</time>
      </trkpt>
      <trkpt lat="35.032890" lon="-114.324640">
        <ele>848.959</ele>
        <time>2018-12-27T23:19:13Z</time>
      </trkpt>
      <trkpt lat="35.032880" lon="-114.324760">
        <ele>849.459</ele>
        <time>2018-12-27T23:19:33Z</time>
      </trkpt>
      <trkpt lat="35.032890" lon="-114.324800">
        <ele>849.592</ele>
        <time>2018-12-27T23:19:53Z</time>
      </trkpt>
      <trkpt lat="35.032900" lon="-114.324880">
        <ele>849.973</ele>
        <time>2018-12-27T23:20:13Z</time>
      </trkpt>
      <trkpt lat="35.032920" lon="-114.324950">
        <ele>850.220</ele>
        <time>2018-12-27T23:20:33Z</time>
      </trkpt>
      <trkpt lat="35.032940" lon="-114.325010">
        <ele>850.508</ele>
        <time>2018-12-27T23:20:53Z</time>
      </trkpt>
      <trkpt lat="35.033000" lon="-114.325140">
        <ele>851.272</ele>
        <time>2018-12-27T23:21:13Z</time>
      </trkpt>
      <trkpt lat="35.033120" lon="-114.325360">
        <ele>852.480</ele>
        <time>2018-12-27T23:21:33Z</time>
      </trkpt>
      <trkpt lat="35.033210" lon="-114.325520">
        <ele>852.935</ele>
        <time>2018-12-27T23:21:53Z</time>
      </trkpt>
      <trkpt lat="35.033290" lon="-114.325690">
        <ele>853.356</ele>
        <time>2018-12-27T23:22:13Z</time>
      </trkpt>
      <trkpt lat="35.033400" lon="-114.325900">
        <ele>853.621</ele>
        <time>2018-12-27T23:22:33Z</time>
      </trkpt>
      <trkpt lat="35.033480" lon="-114.326030">
        <ele>853.772</ele>
        <time>2018-12-27T23:22:53Z</time>
      </trkpt>
      <trkpt lat="35.033550" lon="-114.326130">
        <ele>854.195</ele>
        <time>2018-12-27T23:23:13Z</time>
      </trkpt>
      <trkpt lat="35.033670" lon="-114.326280">
        <ele>854.855</ele>
        <time>2018-12-27T23:23:33Z</time>
      </trkpt>
      <trkpt lat="35.033800" lon="-114.326430">
        <ele>856.575</ele>
        <time>2018-12-27T23:23:53Z</time>
      </trkpt>
      <trkpt lat="35.034020" lon="-114.326690">
        <ele>860.128</ele>
        <time>2018-12-27T23:24:13Z</time>
      </trkpt>
      <trkpt lat="35.034380" lon="-114.327120">
        <ele>864.020</ele>
        <time>2018-12-27T23:24:33Z</time>
      </trkpt>
      <trkpt lat="35.034590" lon="-114.327370">
        <ele>864.908</ele>
        <time>2018-12-27T23:24:53Z</time>
      </trkpt>
      <trkpt lat="35.034710" lon="-114.327530">
        <ele>865.850</ele>
        <time>2018-12-27T23:25:13Z</time>
      </trkpt>
      <trkpt lat="35.034830" lon="-114.327690">
        <ele>867.068</ele>
        <time>2018-12-27T23:25:33Z</time>
      </trkpt>
      <trkpt lat="35.034870" lon="-114.327740">
        <ele>867.963</ele>
        <time>2018-12-27T23:25:53Z</time>
      </trkpt>
      <trkpt lat="35.034910" lon="-114.327780">
        <ele>869.064</ele>
        <time>2018-12-27T23:26:13Z</time>
      </trkpt>
      <trkpt lat="35.034970" lon="-114.327820">
        <ele>870.359</ele>
        <time>2018-12-27T23:26:33Z</time>
      </trkpt>
      <trkpt lat="35.035000" lon="-114.327830">
        <ele>870.730</ele>
        <time>2018-12-27T23:26:53Z</time>
      </trkpt>
      <trkpt lat="35.035050" lon="-114.327840">
        <ele>871.373</ele>
        <time>2018-12-27T23:27:13Z</time>
      </trkpt>
      <trkpt lat="35.035090" lon="-114.327840">
        <ele>871.563</ele>
        <time>2018-12-27T23:27:33Z</time>
      </trkpt>
      <trkpt lat="35.035150" lon="-114.327840">
        <ele>871.712</ele>
        <time>2018-12-27T23:27:53Z</time>
      </trkpt>
      <trkpt lat="35.035250" lon="-114.327830">
        <ele>871.232</ele>
        <time>2018-12-27T23:28:13Z</time>
      </trkpt>
      <trkpt lat="35.035320" lon="-114.327840">
        <ele>871.305</ele>
        <time>2018-12-27T23:28:33Z</time>
      </trkpt>
      <trkpt lat="35.035380" lon="-114.327850">
        <ele>871.508</ele>
        <time>2018-12-27T23:28:53Z</time>
      </trkpt>
      <trkpt lat="35.035430" lon="-114.327870">
        <ele>871.814</ele>
        <time>2018-12-27T23:29:13Z</time>
      </trkpt>
      <trkpt lat="35.035470" lon="-114.327890">
        <ele>871.862</ele>
        <time>2018-12-27T23:29:33Z</time>
      </trkpt>
      <trkpt lat="35.035520" lon="-114.327930">
        <ele>872.277</ele>
        <time>2018-12-27T23:29:53Z</time>
      </trkpt>
      <trkpt lat="35.035560" lon="-114.327980">
        <ele>872.688</ele>
        <time>2018-12-27T23:30:13Z</time>
      </trkpt>
      <trkpt lat="35.035580" lon="-114.328020">
        <ele>873.023</ele>
        <time>2018-12-27T23:30:33Z</time>
      </trkpt>
      <trkpt lat="35.035600" lon="-114.328060">
        <ele>873.364</ele>
        <time>2018-12-27T23:30:53Z</time>
      </trkpt>
      <trkpt lat="35.035610" lon="-114.328110">
        <ele>874.047</ele>
        <time>2018-12-27T23:31:13Z</time>
      </trkpt>
      <trkpt lat="35.035610" lon="-114.328160">
        <ele>874.837</ele>
        <time>2018-12-27T23:31:33Z</time>
      </trkpt>
      <trkpt lat="35.035610" lon="-114.328220">
        <ele>875.426</ele>
        <time>2018-12-27T23:31:53Z</time>
      </trkpt>
      <trkpt lat="35.035610" lon="-114.328430">
        <ele>876.147</ele>
        <time>2018-12-27T23:32:13Z</time>
      </trkpt>
      <trkpt lat="35.035620" lon="-114.328560">
        <ele>876.311</ele>
        <time>2018-12-27T23:32:33Z</time>
      </trkpt>
      <trkpt lat="35.035630" lon="-114.328690">
        <ele>876.508</ele>
        <time>2018-12-27T23:32:53Z</time>
      </trkpt>
      <trkpt lat="35.035650" lon="-114.328920">
        <ele>878.755</ele>
        <time>2018-12-27T23:33:13Z</time>
      </trkpt>
      <trkpt lat="35.035690" lon="-114.329110">
        <ele>880.523</ele>
        <time>2018-12-27T23:33:33Z</time>
      </trkpt>
      <trkpt lat="35.035720" lon="-114.329260">
        <ele>881.498</ele>
        <time>2018-12-27T23:33:53Z</time>
      </trkpt>
      <trkpt lat="35.035740" lon="-114.329380">
        <ele>882.299</ele>
        <time>2018-12-27T23:34:13Z</time>
      </trkpt>
      <trkpt lat="35.035750" lon="-114.329530">
        <ele>883.794</ele>
        <time>2018-12-27T23:34:33Z</time>
      </trkpt>
      <trkpt lat="35.035770" lon="-114.329680">
        <ele>884.925</ele>
        <time>2018-12-27T23:34:53Z</time>
      </trkpt>
      <trkpt lat="35.035790" lon="-114.329750">
        <ele>885.348</ele>
        <time>2018-12-27T23:35:13Z</time>
      </trkpt>
      <trkpt lat="35.035800" lon="-114.329810">
        <ele>885.888</ele>
        <time>2018-12-27T23:35:33Z</time>
      </trkpt>
      <trkpt lat="35.035820" lon="-114.329850">
        <ele>886.092</ele>
        <time>2018-12-27T23:35:53Z</time>
      </trkpt>
      <trkpt lat="35.035880" lon="-114.329950">
        <ele>885.973</ele>
        <time>2018-12-27T23:36:13Z</time>
      </trkpt>
      <trkpt lat="35.035930" lon="-114.330050">
        <ele>885.920</ele>
        <time>2018-12-27T23:36:33Z</time>
      </trkpt>
      <trkpt lat="35.035960" lon="-114.330120">
        <ele>885.908</ele>
        <time>2018-12-27T23:36:53Z</time>
      </trkpt>
      <trkpt lat="35.035970" lon="-114.330190">
        <ele>886.362</ele>
        <time>2018-12-27T23:37:13Z</time>
      </trkpt>
      <trkpt lat="35.036010" lon="-114.330400">
        <ele>885.750</ele>
        <time>2018-12-27T23:37:33Z</time>
      </trkpt>
      <trkpt lat="35.036070" lon="-114.330620">
        <ele>884.445</ele>
        <time>2018-12-27T23:37:53Z</time>
      </trkpt>
      <trkpt lat="35.036110" lon="-114.330780">
        <ele>884.656</ele>
        <time>2018-12-27T23:38:13Z</time>
      </trkpt>
      <trkpt lat="35.036150" lon="-114.330950">
        <ele>885.411</ele>
        <time>2018-12-27T23:38:33Z</time>
      </trkpt>
      <trkpt lat="35.036220" lon="-114.331150">
        <ele>884.652</ele>
        <time>2018-12-27T23:38:53Z</time>
      </trkpt>
      <trkpt lat="35.036260" lon="-114.331290">
        <ele>884.285</ele>
        <time>2018-12-27T23:39:13Z</time>
      </trkpt>
      <trkpt lat="35.036290" lon="-114.331380">
        <ele>883.775</ele>
        <time>2018-12-27T23:39:33Z</time>
      </trkpt>
      <trkpt lat="35.036320" lon="-114.331490">
        <ele>883.545</ele>
        <time>2018-12-27T23:39:53Z</time>
      </trkpt>
      <trkpt lat="35.036370" lon="-114.331730">
        <ele>883.247</ele>
        <time>2018-12-27T23:40:13Z</time>
      </trkpt>
      <trkpt lat="35.036450" lon="-114.332060">
        <ele>882.411</ele>
        <time>2018-12-27T23:40:33Z</time>
      </trkpt>
      <trkpt lat="35.036500" lon="-114.332270">
        <ele>882.308</ele>
        <time>2018-12-27T23:40:53Z</time>
      </trkpt>
      <trkpt lat="35.036530" lon="-114.332410">
        <ele>882.267</ele>
        <time>2018-12-27T23:41:13Z</time>
      </trkpt>
      <trkpt lat="35.036550" lon="-114.332520">
        <ele>881.875</ele>
        <time>2018-12-27T23:41:33Z</time>
      </trkpt>
      <trkpt lat="35.036570" lon="-114.332640">
        <ele>881.310</ele>
        <time>2018-12-27T23:41:53Z</time>
      </trkpt>
      <trkpt lat="35.036570" lon="-114.332800">
        <ele>881.251</ele>
        <time>2018-12-27T23:42:13Z</time>
      </trkpt>
      <trkpt lat="35.036550" lon="-114.332920">
        <ele>881.946</ele>
        <time>2018-12-27T23:42:33Z</time>
      </trkpt>
      <trkpt lat="35.036510" lon="-114.333140">
        <ele>882.737</ele>
        <time>2018-12-27T23:42:53Z</time>
      </trkpt>
      <trkpt lat="35.036470" lon="-114.333330">
        <ele>882.460</ele>
        <time>2018-12-27T23:43:13Z</time>
      </trkpt>
      <trkpt lat="35.036410" lon="-114.333500">
        <ele>882.480</ele>
        <time>2018-12-27T23:43:33Z</time>
      </trkpt>
      <trkpt lat="35.036370" lon="-114.333600">
        <ele>882.667</ele>
        <time>2018-12-27T23:43:53Z</time>
      </trkpt>
      <trkpt lat="35.036320" lon="-114.333710">
        <ele>882.881</ele>
        <time>2018-12-27T23:44:13Z</time>
      </trkpt>
      <trkpt lat="35.036190" lon="-114.333930">
        <ele>886.219</ele>
        <time>2018-12-27T23:44:33Z</time>
      </trkpt>
      <trkpt lat="35.036130" lon="-114.334070">
        <ele>887.008</ele>
        <time>2018-12-27T23:44:53Z</time>
      </trkpt>
      <trkpt lat="35.036100" lon="-114.334170">
        <ele>887.279</ele>
        <time>2018-12-27T23:45:13Z</time>
      </trkpt>
      <trkpt lat="35.036020" lon="-114.334480">
        <ele>887.997</ele>
        <time>2018-12-27T23:45:33Z</time>
      </trkpt>
      <trkpt lat="35.036000" lon="-114.334600">
        <ele>888.232</ele>
        <time>2018-12-27T23:45:53Z</time>
      </trkpt>
      <trkpt lat="35.036000" lon="-114.334700">
        <ele>888.533</ele>
        <time>2018-12-27T23:46:13Z</time>
      </trkpt>
      <trkpt lat="35.036010" lon="-114.334830">
        <ele>888.628</ele>
        <time>2018-12-27T23:46:33Z</time>
      </trkpt>
      <trkpt lat="35.036040" lon="-114.334940">
        <ele>888.669</ele>
        <time>2018-12-27T23:46:53Z</time>
      </trkpt>
      <trkpt lat="35.036070" lon="-114.335000">
        <ele>888.512</ele>
        <time>2018-12-27T23:47:13Z</time>
      </trkpt>
      <trkpt lat="35.036100" lon="-114.335050">
        <ele>888.452</ele>
        <time>2018-12-27T23:47:33Z</time>
      </trkpt>
      <trkpt lat="35.036180" lon="-114.335140">
        <ele>888.068</ele>
        <time>2018-12-27T23:47:53Z</time>
      </trkpt>
      <trkpt lat="35.036290" lon="-114.335250">
        <ele>887.942</ele>
        <time>2018-12-27T23:48:13Z</time>
      </trkpt>
      <trkpt lat="35.036510" lon="-114.335440">
        <ele>884.426</ele>
        <time>2018-12-27T23:48:33Z</time>
      </trkpt>
      <trkpt lat="35.036620" lon="-114.335520">
        <ele>886.608</ele>
        <time>2018-12-27T23:48:53Z</time>
      </trkpt>
      <trkpt lat="35.036810" lon="-114.335640">
        <ele>893.329</ele>
        <time>2018-12-27T23:49:13Z</time>
      </trkpt>
      <trkpt lat="35.036930" lon="-114.335730">
        <ele>894.487</ele>
        <time>2018-12-27T23:49:33Z</time>
      </trkpt>
      <trkpt lat="35.036990" lon="-114.335790">
        <ele>894.762</ele>
        <time>2018-12-27T23:49:53Z</time>
      </trkpt>
      <trkpt lat="35.037070" lon="-114.335890">
        <ele>895.123</ele>
        <time>2018-12-27T23:50:13Z</time>
      </trkpt>
      <trkpt lat="35.037130" lon="-114.336040">
        <ele>895.028</ele>
        <time>2018-12-27T23:50:33Z</time>
      </trkpt>
      <trkpt lat="35.037270" lon="-114.336370">
        <ele>896.529</ele>
        <time>2018-12-27T23:50:53Z</time>
      </trkpt>
      <trkpt lat="35.037370" lon="-114.336570">
        <ele>897.212</ele>
        <time>2018-12-27T23:51:13Z</time>
      </trkpt>
      <trkpt lat="35.037480" lon="-114.336780">
        <ele>897.662</ele>
        <time>2018-12-27T23:51:33Z</time>
      </trkpt>
      <trkpt lat="35.037520" lon="-114.336870">
        <ele>897.756</ele>
        <time>2018-12-27T23:51:53Z</time>
      </trkpt>
      <trkpt lat="35.037540" lon="-114.336970">
        <ele>898.059</ele>
        <time>2018-12-27T23:52:13Z</time>
      </trkpt>
      <trkpt lat="35.037550" lon="-114.337130">
        <ele>898.714</ele>
        <time>2018-12-27T23:52:33Z</time>
      </trkpt>
      <trkpt lat="35.037560" lon="-114.337250">
        <ele>899.008</ele>
        <time>2018-12-27T23:52:53Z</time>
      </trkpt>
      <trkpt lat="35.037550" lon="-114.337400">
        <ele>899.768</ele>
        <time>2018-12-27T23:53:13Z</time>
      </trkpt>
      <trkpt lat="35.037560" lon="-114.337470">
        <ele>899.836</ele>
        <time>2018-12-27T23:53:33Z</time>
      </trkpt>
      <trkpt lat="35.037600" lon="-114.337740">
        <ele>900.521</ele>
        <time>2018-12-27T23:53:53Z</time>
      </trkpt>
      <trkpt lat="35.037640" lon="-114.337960">
        <ele>901.842</ele>
        <time>2018-12-27T23:54:13Z</time>
      </trkpt>
      <trkpt lat="35.037720" lon="-114.338300">
        <ele>904.217</ele>
        <time>2018-12-27T23:54:33Z</time>
      </trkpt>
      <trkpt lat="35.037730" lon="-114.338390">
        <ele>904.748</ele>
        <time>2018-12-27T23:54:53Z</time>
      </trkpt>
      <trkpt lat="35.037750" lon="-114.338530">
        <ele>904.931</ele>
        <time>2018-12-27T23:55:13Z</time>
      </trkpt>
      <trkpt lat="35.037740" lon="-114.338660">
        <ele>905.071</ele>
        <time>2018-12-27T23:55:33Z</time>
      </trkpt>
      <trkpt lat="35.037730" lon="-114.338740">
        <ele>905.164</ele>
        <time>2018-12-27T23:55:53Z</time>
      </trkpt>
      <trkpt lat="35.037690" lon="-114.338840">
        <ele>905.606</ele>
        <time>2018-12-27T23:56:13Z</time>
      </trkpt>
      <trkpt lat="35.037630" lon="-114.338950">
        <ele>906.316</ele>
        <time>2018-12-27T23:56:33Z</time>
      </trkpt>
      <trkpt lat="35.037580" lon="-114.339040">
        <ele>906.808</ele>
        <time>2018-12-27T23:56:53Z</time>
      </trkpt>
      <trkpt lat="35.037520" lon="-114.339150">
        <ele>907.419</ele>
        <time>2018-12-27T23:57:13Z</time>
      </trkpt>
      <trkpt lat="35.037480" lon="-114.339310">
        <ele>907.737</ele>
        <time>2018-12-27T23:57:33Z</time>
      </trkpt>
      <trkpt lat="35.037360" lon="-114.340030">
        <ele>909.582</ele>
        <time>2018-12-27T23:57:53Z</time>
      </trkpt>
      <trkpt lat="35.037290" lon="-114.340520">
        <ele>909.943</ele>
        <time>2018-12-27T23:58:13Z</time>
      </trkpt>
      <trkpt lat="35.037210" lon="-114.340950">
        <ele>910.388</ele>
        <time>2018-12-27T23:58:33Z</time>
      </trkpt>
      <trkpt lat="35.037140" lon="-114.341300">
        <ele>910.989</ele>
        <time>2018-12-27T23:58:53Z</time>
      </trkpt>
      <trkpt lat="35.037100" lon="-114.341560">
        <ele>911.522</ele>
        <time>2018-12-27T23:59:13Z</time>
      </trkpt>
      <trkpt lat="35.037070" lon="-114.341710">
        <ele>912.242</ele>
        <time>2018-12-27T23:59:33Z</time>
      </trkpt>
      <trkpt lat="35.037070" lon="-114.341820">
        <ele>912.328</ele>
        <time>2018-12-27T23:59:53Z</time>
      </trkpt>
      <trkpt lat="35.037070" lon="-114.341890">
        <ele>912.489</ele>
        <time>2018-12-28T00:00:13Z</time>
      </trkpt>
      <trkpt lat="35.037080" lon="-114.342030">
        <ele>912.417</ele>
        <time>2018-12-28T00:00:33Z</time>
      </trkpt>
      <trkpt lat="35.037100" lon="-114.342170">
        <ele>912.308</ele>
        <time>2018-12-28T00:00:53Z</time>
      </trkpt>
      <trkpt lat="35.037120" lon="-114.342250">
        <ele>912.325</ele>
        <time>2018-12-28T00:01:13Z</time>
      </trkpt>
      <trkpt lat="35.037150" lon="-114.342320">
        <ele>912.363</ele>
        <time>2018-12-28T00:01:33Z</time>
      </trkpt>
      <trkpt lat="35.037170" lon="-114.342360">
        <ele>912.498</ele>
        <time>2018-12-28T00:01:53Z</time>
      </trkpt>
      <trkpt lat="35.037230" lon="-114.342420">
        <ele>912.629</ele>
        <time>2018-12-28T00:02:13Z</time>
      </trkpt>
      <trkpt lat="35.037330" lon="-114.342490">
        <ele>913.394</ele>
        <time>2018-12-28T00:02:33Z</time>
      </trkpt>
      <trkpt lat="35.037410" lon="-114.342520">
        <ele>914.095</ele>
        <time>2018-12-28T00:02:53Z</time>
      </trkpt>
      <trkpt lat="35.037480" lon="-114.342530">
        <ele>914.598</ele>
        <time>2018-12-28T00:03:13Z</time>
      </trkpt>
      <trkpt lat="35.037590" lon="-114.342510">
        <ele>915.198</ele>
        <time>2018-12-28T00:03:33Z</time>
      </trkpt>
      <trkpt lat="35.037730" lon="-114.342480">
        <ele>915.869</ele>
        <time>2018-12-28T00:03:53Z</time>
      </trkpt>
      <trkpt lat="35.037820" lon="-114.342470">
        <ele>916.204</ele>
        <time>2018-12-28T00:04:13Z</time>
      </trkpt>
      <trkpt lat="35.037890" lon="-114.342490">
        <ele>916.624</ele>
        <time>2018-12-28T00:04:33Z</time>
      </trkpt>
      <trkpt lat="35.037940" lon="-114.342520">
        <ele>916.708</ele>
        <time>2018-12-28T00:04:53Z</time>
      </trkpt>
      <trkpt lat="35.037970" lon="-114.342540">
        <ele>916.669</ele>
        <time>2018-12-28T00:05:13Z</time>
      </trkpt>
      <trkpt lat="35.038000" lon="-114.342580">
        <ele>916.587</ele>
        <time>2018-12-28T00:05:33Z</time>
      </trkpt>
      <trkpt lat="35.038040" lon="-114.342670">
        <ele>916.772</ele>
        <time>2018-12-28T00:05:53Z</time>
      </trkpt>
      <trkpt lat="35.038050" lon="-114.342750">
        <ele>916.833</ele>
        <time>2018-12-28T00:06:13Z</time>
      </trkpt>
      <trkpt lat="35.038060" lon="-114.342800">
        <ele>916.928</ele>
        <time>2018-12-28T00:06:33Z</time>
      </trkpt>
      <trkpt lat="35.038060" lon="-114.342840">
        <ele>917.029</ele>
        <time>2018-12-28T00:06:53Z</time>
      </trkpt>
      <trkpt lat="35.038010" lon="-114.343050">
        <ele>917.962</ele>
        <time>2018-12-28T00:07:13Z</time>
      </trkpt>
      <trkpt lat="35.037890" lon="-114.343420">
        <ele>921.012</ele>
        <time>2018-12-28T00:07:33Z</time>
      </trkpt>
      <trkpt lat="35.037750" lon="-114.343940">
        <ele>926.056</ele>
        <time>2018-12-28T00:07:53Z</time>
      </trkpt>
      <trkpt lat="35.037690" lon="-114.344170">
        <ele>928.059</ele>
        <time>2018-12-28T00:08:13Z</time>
      </trkpt>
      <trkpt lat="35.037640" lon="-114.344310">
        <ele>929.314</ele>
        <time>2018-12-28T00:08:33Z</time>
      </trkpt>
      <trkpt lat="35.037590" lon="-114.344410">
        <ele>929.508</ele>
        <time>2018-12-28T00:08:53Z</time>
      </trkpt>
      <trkpt lat="35.037510" lon="-114.344480">
        <ele>930.278</ele>
        <time>2018-12-28T00:09:13Z</time>
      </trkpt>
      <trkpt lat="35.037430" lon="-114.344530">
        <ele>931.116</ele>
        <time>2018-12-28T00:09:33Z</time>
      </trkpt>
      <trkpt lat="35.037310" lon="-114.344560">
        <ele>932.891</ele>
        <time>2018-12-28T00:09:53Z</time>
      </trkpt>
      <trkpt lat="35.037220" lon="-114.344580">
        <ele>934.222</ele>
        <time>2018-12-28T00:10:13Z</time>
      </trkpt>
      <trkpt lat="35.037130" lon="-114.344630">
        <ele>935.677</ele>
        <time>2018-12-28T00:10:33Z</time>
      </trkpt>
      <trkpt lat="35.037090" lon="-114.344670">
        <ele>936.268</ele>
        <time>2018-12-28T00:10:53Z</time>
      </trkpt>
      <trkpt lat="35.037030" lon="-114.344740">
        <ele>937.241</ele>
        <time>2018-12-28T00:11:13Z</time>
      </trkpt>
      <trkpt lat="35.036990" lon="-114.344850">
        <ele>937.811</ele>
        <time>2018-12-28T00:11:33Z</time>
      </trkpt>
      <trkpt lat="35.036980" lon="-114.344940">
        <ele>938.384</ele>
        <time>2018-12-28T00:11:53Z</time>
      </trkpt>
      <trkpt lat="35.037000" lon="-114.345090">
        <ele>938.607</ele>
        <time>2018-12-28T00:12:13Z</time>
      </trkpt>
      <trkpt lat="35.037110" lon="-114.345450">
        <ele>937.917</ele>
        <time>2018-12-28T00:12:33Z</time>
      </trkpt>
      <trkpt lat="35.037140" lon="-114.345570">
        <ele>938.108</ele>
        <time>2018-12-28T00:12:53Z</time>
      </trkpt>
      <trkpt lat="35.037170" lon="-114.345730">
        <ele>939.051</ele>
        <time>2018-12-28T00:13:13Z</time>
      </trkpt>
      <trkpt lat="35.037180" lon="-114.345950">
        <ele>942.259</ele>
        <time>2018-12-28T00:13:33Z</time>
      </trkpt>
      <trkpt lat="35.037190" lon="-114.346050">
        <ele>943.814</ele>
        <time>2018-12-28T00:13:53Z</time>
      </trkpt>
      <trkpt lat="35.037200" lon="-114.346180">
        <ele>945.935</ele>
        <time>2018-12-28T00:14:13Z</time>
      </trkpt>
      <trkpt lat="35.037230" lon="-114.346290">
        <ele>946.830</ele>
        <time>2018-12-28T00:14:33Z</time>
      </trkpt>
      <trkpt lat="35.037280" lon="-114.346380">
        <ele>946.751</ele>
        <time>2018-12-28T00:14:53Z</time>
      </trkpt>
      <trkpt lat="35.037330" lon="-114.346470">
        <ele>946.774</ele>
        <time>2018-12-28T00:15:13Z</time>
      </trkpt>
      <trkpt lat="35.037390" lon="-114.346540">
        <ele>946.584</ele>
        <time>2018-12-28T00:15:33Z</time>
      </trkpt>
      <trkpt lat="35.037430" lon="-114.346580">
        <ele>946.764</ele>
        <time>2018-12-28T00:15:53Z</time>
      </trkpt>
      <trkpt lat="35.037710" lon="-114.346710">
        <ele>947.706</ele>
        <time>2018-12-28T00:16:13Z</time>
      </trkpt>
      <trkpt lat="35.037920" lon="-114.346820">
        <ele>948.516</ele>
        <time>2018-12-28T00:16:33Z</time>
      </trkpt>
      <trkpt lat="35.038030" lon="-114.346910">
        <ele>948.108</ele>
        <time>2018-12-28T00:16:53Z</time>
      </trkpt>
      <trkpt lat="35.038110" lon="-114.347000">
        <ele>947.979</ele>
        <time>2018-12-28T00:17:13Z</time>
      </trkpt>
      <trkpt lat="35.038180" lon="-114.347140">
        <ele>948.387</ele>
        <time>2018-12-28T00:17:33Z</time>
      </trkpt>
      <trkpt lat="35.038290" lon="-114.347490">
        <ele>951.392</ele>
        <time>2018-12-28T00:17:53Z</time>
      </trkpt>
      <trkpt lat="35.038360" lon="-114.347710">
        <ele>954.573</ele>
        <time>2018-12-28T00:18:13Z</time>
      </trkpt>
      <trkpt lat="35.038380" lon="-114.347840">
        <ele>955.798</ele>
        <time>2018-12-28T00:18:33Z</time>
      </trkpt>
      <trkpt lat="35.038380" lon="-114.347980">
        <ele>956.889</ele>
        <time>2018-12-28T00:18:53Z</time>
      </trkpt>
      <trkpt lat="35.038360" lon="-114.348090">
        <ele>957.652</ele>
        <time>2018-12-28T00:19:13Z</time>
      </trkpt>
      <trkpt lat="35.038300" lon="-114.348230">
        <ele>959.192</ele>
        <time>2018-12-28T00:19:33Z</time>
      </trkpt>
      <trkpt lat="35.038210" lon="-114.348370">
        <ele>960.675</ele>
        <time>2018-12-28T00:19:53Z</time>
      </trkpt>
      <trkpt lat="35.038020" lon="-114.348640">
        <ele>962.528</ele>
        <time>2018-12-28T00:20:13Z</time>
      </trkpt>
      <trkpt lat="35.037980" lon="-114.348690">
        <ele>962.720</ele>
        <time>2018-12-28T00:20:33Z</time>
      </trkpt>
      <trkpt lat="35.037940" lon="-114.348730">
        <ele>962.808</ele>
        <time>2018-12-28T00:20:53Z</time>
      </trkpt>
      <trkpt lat="35.037900" lon="-114.348750">
        <ele>963.140</ele>
        <time>2018-12-28T00:21:13Z</time>
      </trkpt>
      <trkpt lat="35.037820" lon="-114.348770">
        <ele>964.318</ele>
        <time>2018-12-28T00:21:33Z</time>
      </trkpt>
      <trkpt lat="35.037730" lon="-114.348780">
        <ele>965.643</ele>
        <time>2018-12-28T00:21:53Z</time>
      </trkpt>
      <trkpt lat="35.037610" lon="-114.348780">
        <ele>967.344</ele>
        <time>2018-12-28T00:22:13Z</time>
      </trkpt>
      <trkpt lat="35.037480" lon="-114.348780">
        <ele>969.349</ele>
        <time>2018-12-28T00:22:33Z</time>
      </trkpt>
      <trkpt lat="35.037400" lon="-114.348800">
        <ele>970.790</ele>
        <time>2018-12-28T00:22:53Z</time>
      </trkpt>
      <trkpt lat="35.037350" lon="-114.348810">
        <ele>971.593</ele>
        <time>2018-12-28T00:23:13Z</time>
      </trkpt>
      <trkpt lat="35.037330" lon="-114.348820">
        <ele>971.713</ele>
        <time>2018-12-28T00:23:33Z</time>
      </trkpt>
      <trkpt lat="35.037310" lon="-114.348830">
        <ele>972.046</ele>
        <time>2018-12-28T00:23:53Z</time>
      </trkpt>
      <trkpt lat="35.037300" lon="-114.348850">
        <ele>972.188</ele>
        <time>2018-12-28T00:24:13Z</time>
      </trkpt>
      <trkpt lat="35.037290" lon="-114.348860">
        <ele>972.316</ele>
        <time>2018-12-28T00:24:33Z</time>
      </trkpt>
      <trkpt lat="35.037270" lon="-114.348920">
        <ele>972.608</ele>
        <time>2018-12-28T00:24:53Z</time>
      </trkpt>
      <trkpt lat="35.037260" lon="-114.348990">
        <ele>972.987</ele>
        <time>2018-12-28T00:25:13Z</time>
      </trkpt>
      <trkpt lat="35.037270" lon="-114.349040">
        <ele>973.095</ele>
        <time>2018-12-28T00:25:33Z</time>
      </trkpt>
      <trkpt lat="35.037300" lon="-114.349080">
        <ele>973.290</ele>
        <time>2018-12-28T00:25:53Z</time>
      </trkpt>
      <trkpt lat="35.037360" lon="-114.349110">
        <ele>973.461</ele>
        <time>2018-12-28T00:26:13Z</time>
      </trkpt>
      <trkpt lat="35.037440" lon="-114.349140">
        <ele>972.636</ele>
        <time>2018-12-28T00:26:33Z</time>
      </trkpt>
      <trkpt lat="35.037540" lon="-114.349190">
        <ele>971.757</ele>
        <time>2018-12-28T00:26:53Z</time>
      </trkpt>
      <trkpt lat="35.037600" lon="-114.349230">
        <ele>971.340</ele>
        <time>2018-12-28T00:27:13Z</time>
      </trkpt>
      <trkpt lat="35.037660" lon="-114.349270">
        <ele>970.860</ele>
        <time>2018-12-28T00:27:33Z</time>
      </trkpt>
      <trkpt lat="35.037700" lon="-114.349330">
        <ele>970.727</ele>
        <time>2018-12-28T00:27:53Z</time>
      </trkpt>
      <trkpt lat="35.037750" lon="-114.349410">
        <ele>970.768</ele>
        <time>2018-12-28T00:28:13Z</time>
      </trkpt>
      <trkpt lat="35.037760" lon="-114.349440">
        <ele>970.914</ele>
        <time>2018-12-28T00:28:33Z</time>
      </trkpt>
      <trkpt lat="35.037820" lon="-114.349600">
        <ele>971.808</ele>
        <time>2018-12-28T00:28:53Z</time>
      </trkpt>
      <trkpt lat="35.037920" lon="-114.349790">
        <ele>973.555</ele>
        <time>2018-12-28T00:29:13Z</time>
      </trkpt>
      <trkpt lat="35.038010" lon="-114.349910">
        <ele>973.743</ele>
        <time>2018-12-28T00:29:33Z</time>
      </trkpt>
      <trkpt lat="35.038090" lon="-114.350010">
        <ele>973.538</ele>
        <time>2018-12-28T00:29:53Z</time>
      </trkpt>
      <trkpt lat="35.038150" lon="-114.350100">
        <ele>973.389</ele>
        <time>2018-12-28T00:30:13Z</time>
      </trkpt>
      <trkpt lat="35.038220" lon="-114.350220">
        <ele>973.164</ele>
        <time>2018-12-28T00:30:33Z</time>
      </trkpt>
      <trkpt lat="35.038250" lon="-114.350310">
        <ele>973.175</ele>
        <time>2018-12-28T00:30:53Z</time>
      </trkpt>
      <trkpt lat="35.038260" lon="-114.350370">
        <ele>973.448</ele>
        <time>2018-12-28T00:31:13Z</time>
      </trkpt>
      <trkpt lat="35.038290" lon="-114.350470">
        <ele>973.828</ele>
        <time>2018-12-28T00:31:33Z</time>
      </trkpt>
      <trkpt lat="35.038300" lon="-114.350580">
        <ele>975.236</ele>
        <time>2018-12-28T00:31:53Z</time>
      </trkpt>
      <trkpt lat="35.038290" lon="-114.350670">
        <ele>976.717</ele>
        <time>2018-12-28T00:32:13Z</time>
      </trkpt>
      <trkpt lat="35.038260" lon="-114.350800">
        <ele>977.618</ele>
        <time>2018-12-28T00:32:33Z</time>
      </trkpt>
      <trkpt lat="35.038200" lon="-114.350970">
        <ele>979.708</ele>
        <time>2018-12-28T00:32:53Z</time>
      </trkpt>
      <trkpt lat="35.038160" lon="-114.351110">
        <ele>980.846</ele>
        <time>2018-12-28T00:33:13Z</time>
      </trkpt>
      <trkpt lat="35.038150" lon="-114.351220">
        <ele>981.294</ele>
        <time>2018-12-28T00:33:33Z</time>
      </trkpt>
      <trkpt lat="35.038180" lon="-114.351490">
        <ele>981.839</ele>
        <time>2018-12-28T00:33:53Z</time>
      </trkpt>
      <trkpt lat="35.038200" lon="-114.351710">
        <ele>982.390</ele>
        <time>2018-12-28T00:34:13Z</time>
      </trkpt>
      <trkpt lat="35.038210" lon="-114.351870">
        <ele>982.665</ele>
        <time>2018-12-28T00:34:33Z</time>
      </trkpt>
      <trkpt lat="35.038190" lon="-114.351950">
        <ele>983.426</ele>
        <time>2018-12-28T00:34:53Z</time>
      </trkpt>
      <trkpt lat="35.038160" lon="-114.352140">
        <ele>984.379</ele>
        <time>2018-12-28T00:35:13Z</time>
      </trkpt>
      <trkpt lat="35.038140" lon="-114.352220">
        <ele>984.329</ele>
        <time>2018-12-28T00:35:33Z</time>
      </trkpt>
      <trkpt lat="35.038100" lon="-114.352310">
        <ele>984.811</ele>
        <time>2018-12-28T00:35:53Z</time>
      </trkpt>
      <trkpt lat="35.038050" lon="-114.352410">
        <ele>985.621</ele>
        <time>2018-12-28T00:36:13Z</time>
      </trkpt>
      <trkpt lat="35.037980" lon="-114.352490">
        <ele>987.703</ele>
        <time>2018-12-28T00:36:33Z</time>
      </trkpt>
      <trkpt lat="35.037870" lon="-114.352610">
        <ele>991.108</ele>
        <time>2018-12-28T00:36:53Z</time>
      </trkpt>
      <trkpt lat="35.037730" lon="-114.352790">
        <ele>992.174</ele>
        <time>2018-12-28T00:37:13Z</time>
      </trkpt>
      <trkpt lat="35.037580" lon="-114.352960">
        <ele>992.812</ele>
        <time>2018-12-28T00:37:33Z</time>
      </trkpt>
      <trkpt lat="35.037470" lon="-114.353050">
        <ele>994.177</ele>
        <time>2018-12-28T00:37:53Z</time>
      </trkpt>
      <trkpt lat="35.037380" lon="-114.353130">
        <ele>994.458</ele>
        <time>2018-12-28T00:38:13Z</time>
      </trkpt>
      <trkpt lat="35.037360" lon="-114.353180">
        <ele>994.053</ele>
        <time>2018-12-28T00:38:33Z</time>
      </trkpt>
      <trkpt lat="35.037330" lon="-114.353220">
        <ele>994.474</ele>
        <time>2018-12-28T00:38:53Z</time>
      </trkpt>
      <trkpt lat="35.037310" lon="-114.353300">
        <ele>995.297</ele>
        <time>2018-12-28T00:39:13Z</time>
      </trkpt>
      <trkpt lat="35.037320" lon="-114.353390">
        <ele>995.827</ele>
        <time>2018-12-28T00:39:33Z</time>
      </trkpt>
      <trkpt lat="35.037340" lon="-114.353460">
        <ele>996.153</ele>
        <time>2018-12-28T00:39:53Z</time>
      </trkpt>
      <trkpt lat="35.037370" lon="-114.353520">
        <ele>996.304</ele>
        <time>2018-12-28T00:40:13Z</time>
      </trkpt>
      <trkpt lat="35.037420" lon="-114.353570">
        <ele>996.814</ele>
        <time>2018-12-28T00:40:33Z</time>
      </trkpt>
      <trkpt lat="35.037450" lon="-114.353590">
        <ele>997.208</ele>
        <time>2018-12-28T00:40:53Z</time>
      </trkpt>
      <trkpt lat="35.037520" lon="-114.353620">
        <ele>998.148</ele>
        <time>2018-12-28T00:41:13Z</time>
      </trkpt>
      <trkpt lat="35.037580" lon="-114.353600">
        <ele>998.226</ele>
        <time>2018-12-28T00:41:33Z</time>
      </trkpt>
      <trkpt lat="35.037640" lon="-114.353560">
        <ele>997.761</ele>
        <time>2018-12-28T00:41:53Z</time>
      </trkpt>
      <trkpt lat="35.037830" lon="-114.353360">
        <ele>997.012</ele>
        <time>2018-12-28T00:42:13Z</time>
      </trkpt>
      <trkpt lat="35.037910" lon="-114.353300">
        <ele>997.147</ele>
        <time>2018-12-28T00:42:33Z</time>
      </trkpt>
      <trkpt lat="35.037960" lon="-114.353250">
        <ele>997.198</ele>
        <time>2018-12-28T00:42:53Z</time>
      </trkpt>
      <trkpt lat="35.038020" lon="-114.353220">
        <ele>998.011</ele>
        <time>2018-12-28T00:43:13Z</time>
      </trkpt>
      <trkpt lat="35.038080" lon="-114.353200">
        <ele>999.291</ele>
        <time>2018-12-28T00:43:33Z</time>
      </trkpt>
      <trkpt lat="35.038170" lon="-114.353180">
        <ele>1001.078</ele>
        <time>2018-12-28T00:43:53Z</time>
      </trkpt>
      <trkpt lat="35.038250" lon="-114.353170">
        <ele>1001.733</ele>
        <time>2018-12-28T00:44:13Z</time>
      </trkpt>
      <trkpt lat="35.038330" lon="-114.353190">
        <ele>1002.726</ele>
        <time>2018-12-28T00:44:33Z</time>
      </trkpt>
      <trkpt lat="35.038420" lon="-114.353240">
        <ele>1003.908</ele>
        <time>2018-12-28T00:44:53Z</time>
      </trkpt>
      <trkpt lat="35.038540" lon="-114.353360">
        <ele>1004.860</ele>
        <time>2018-12-28T00:45:13Z</time>
      </trkpt>
      <trkpt lat="35.038720" lon="-114.353560">
        <ele>1005.588</ele>
        <time>2018-12-28T00:45:33Z</time>
      </trkpt>
      <trkpt lat="35.038840" lon="-114.353700">
        <ele>1005.053</ele>
        <time>2018-12-28T00:45:53Z</time>
      </trkpt>
      <trkpt lat="35.038900" lon="-114.353790">
        <ele>1004.934</ele>
        <time>2018-12-28T00:46:13Z</time>
      </trkpt>
      <trkpt lat="35.038940" lon="-114.353860">
        <ele>1004.529</ele>
        <time>2018-12-28T00:46:33Z</time>
      </trkpt>
      <trkpt lat="35.038950" lon="-114.353930">
        <ele>1004.530</ele>
        <time>2018-12-28T00:46:53Z</time>
      </trkpt>
      <trkpt lat="35.038960" lon="-114.353960">
        <ele>1004.413</ele>
        <time>2018-12-28T00:47:13Z</time>
      </trkpt>
      <trkpt lat="35.038950" lon="-114.354040">
        <ele>1004.683</ele>
        <time>2018-12-28T00:47:33Z</time>
      </trkpt>
      <trkpt lat="35.038930" lon="-114.354130">
        <ele>1004.287</ele>
        <time>2018-12-28T00:47:53Z</time>
      </trkpt>
      <trkpt lat="35.038910" lon="-114.354200">
        <ele>1004.042</ele>
        <time>2018-12-28T00:48:13Z</time>
      </trkpt>
      <trkpt lat="35.038850" lon="-114.354270">
        <ele>1004.526</ele>
        <time>2018-12-28T00:48:33Z</time>
      </trkpt>
      <trkpt lat="35.038790" lon="-114.354320">
        <ele>1005.108</ele>
        <time>2018-12-28T00:48:53Z</time>
      </trkpt>
      <trkpt lat="35.038690" lon="-114.354390">
        <ele>1006.131</ele>
        <time>2018-12-28T00:49:13Z</time>
      </trkpt>
      <trkpt lat="35.038530" lon="-114.354430">
        <ele>1009.029</ele>
        <time>2018-12-28T00:49:33Z</time>
      </trkpt>
      <trkpt lat="35.038360" lon="-114.354480">
        <ele>1011.894</ele>
        <time>2018-12-28T00:49:53Z</time>
      </trkpt>
      <trkpt lat="35.038310" lon="-114.354530">
        <ele>1012.725</ele>
        <time>2018-12-28T00:50:13Z</time>
      </trkpt>
      <trkpt lat="35.038250" lon="-114.354600">
        <ele>1014.070</ele>
        <time>2018-12-28T00:50:33Z</time>
      </trkpt>
      <trkpt lat="35.038210" lon="-114.354700">
        <ele>1015.911</ele>
        <time>2018-12-28T00:50:53Z</time>
      </trkpt>
      <trkpt lat="35.038200" lon="-114.354800">
        <ele>1017.484</ele>
        <time>2018-12-28T00:51:13Z</time>
      </trkpt>
      <trkpt lat="35.038200" lon="-114.354910">
        <ele>1018.894</ele>
        <time>2018-12-28T00:51:33Z</time>
      </trkpt>
      <trkpt lat="35.038230" lon="-114.355090">
        <ele>1020.216</ele>
        <time>2018-12-28T00:51:53Z</time>
      </trkpt>
      <trkpt lat="35.038300" lon="-114.355290">
        <ele>1020.876</ele>
        <time>2018-12-28T00:52:13Z</time>
      </trkpt>
      <trkpt lat="35.038440" lon="-114.355580">
        <ele>1021.613</ele>
        <time>2018-12-28T00:52:33Z</time>
      </trkpt>
      <trkpt lat="35.038570" lon="-114.355870">
        <ele>1022.808</ele>
        <time>2018-12-28T00:52:53Z</time>
      </trkpt>
      <trkpt lat="35.038630" lon="-114.356000">
        <ele>1023.894</ele>
        <time>2018-12-28T00:53:13Z</time>
      </trkpt>
      <trkpt lat="35.038660" lon="-114.356090">
        <ele>1024.892</ele>
        <time>2018-12-28T00:53:33Z</time>
      </trkpt>
      <trkpt lat="35.038680" lon="-114.356160">
        <ele>1025.487</ele>
        <time>2018-12-28T00:53:53Z</time>
      </trkpt>
      <trkpt lat="35.038700" lon="-114.356200">
        <ele>1025.298</ele>
        <time>2018-12-28T00:54:13Z</time>
      </trkpt>
      <trkpt lat="35.038730" lon="-114.356240">
        <ele>1024.323</ele>
        <time>2018-12-28T00:54:33Z</time>
      </trkpt>
      <trkpt lat="35.038760" lon="-114.356250">
        <ele>1023.744</ele>
        <time>2018-12-28T00:54:53Z</time>
      </trkpt>
      <trkpt lat="35.038800" lon="-114.356270">
        <ele>1026.367</ele>
        <time>2018-12-28T00:55:13Z</time>
      </trkpt>
      <trkpt lat="35.038840" lon="-114.356270">
        <ele>1027.987</ele>
        <time>2018-12-28T00:55:33Z</time>
      </trkpt>
      <trkpt lat="35.038890" lon="-114.356260">
        <ele>1029.479</ele>
        <time>2018-12-28T00:55:53Z</time>
      </trkpt>
      <trkpt lat="35.038920" lon="-114.356240">
        <ele>1029.805</ele>
        <time>2018-12-28T00:56:13Z</time>
      </trkpt>
      <trkpt lat="35.038950" lon="-114.356200">
        <ele>1030.225</ele>
        <time>2018-12-28T00:56:33Z</time>
      </trkpt>
      <trkpt lat="35.039020" lon="-114.356110">
        <ele>1031.008</ele>
        <time>2018-12-28T00:56:53Z</time>
      </trkpt>
      <trkpt lat="35.039090" lon="-114.356010">
        <ele>1031.030</ele>
        <time>2018-12-28T00:57:13Z</time>
      </trkpt>
      <trkpt lat="35.039200" lon="-114.355940">
        <ele>1031.598</ele>
        <time>2018-12-28T00:57:33Z</time>
      </trkpt>
      <trkpt lat="35.039280" lon="-114.355910">
        <ele>1032.633</ele>
        <time>2018-12-28T00:57:53Z</time>
      </trkpt>
      <trkpt lat="35.039380" lon="-114.355910">
        <ele>1033.184</ele>
        <time>2018-12-28T00:58:13Z</time>
      </trkpt>
      <trkpt lat="35.039460" lon="-114.355920">
        <ele>1033.269</ele>
        <time>2018-12-28T00:58:33Z</time>
      </trkpt>
      <trkpt lat="35.039540" lon="-114.355950">
        <ele>1033.980</ele>
        <time>2018-12-28T00:58:53Z</time>
      </trkpt>
      <trkpt lat="35.039620" lon="-114.355990">
        <ele>1034.523</ele>
        <time>2018-12-28T00:59:13Z</time>
      </trkpt>
      <trkpt lat="35.039670" lon="-114.356040">
        <ele>1035.473</ele>
        <time>2018-12-28T00:59:33Z</time>
      </trkpt>
      <trkpt lat="35.039750" lon="-114.356150">
        <ele>1036.162</ele>
        <time>2018-12-28T00:59:53Z</time>
      </trkpt>
      <trkpt lat="35.039820" lon="-114.356260">
        <ele>1034.583</ele>
        <time>2018-12-28T01:00:13Z</time>
      </trkpt>
      <trkpt lat="35.039850" lon="-114.356310">
        <ele>1033.011</ele>
        <time>2018-12-28T01:00:33Z</time>
      </trkpt>
      <trkpt lat="35.039900" lon="-114.356440">
        <ele>1032.908</ele>
        <time>2018-12-28T01:00:53Z</time>
      </trkpt>
      <trkpt lat="35.039970" lon="-114.356630">
        <ele>1035.589</ele>
        <time>2018-12-28T01:01:13Z</time>
      </trkpt>
      <trkpt lat="35.040050" lon="-114.356800">
        <ele>1038.417</ele>
        <time>2018-12-28T01:01:33Z</time>
      </trkpt>
      <trkpt lat="35.040120" lon="-114.356890">
        <ele>1039.572</ele>
        <time>2018-12-28T01:01:53Z</time>
      </trkpt>
      <trkpt lat="35.040210" lon="-114.357000">
        <ele>1041.683</ele>
        <time>2018-12-28T01:02:13Z</time>
      </trkpt>
      <trkpt lat="35.040280" lon="-114.357070">
        <ele>1042.418</ele>
        <time>2018-12-28T01:02:33Z</time>
      </trkpt>
      <trkpt lat="35.040410" lon="-114.357200">
        <ele>1043.259</ele>
        <time>2018-12-28T01:02:53Z</time>
      </trkpt>
      <trkpt lat="35.040480" lon="-114.357250">
        <ele>1044.342</ele>
        <time>2018-12-28T01:03:13Z</time>
      </trkpt>
      <trkpt lat="35.040520" lon="-114.357260">
        <ele>1044.632</ele>
        <time>2018-12-28T01:03:33Z</time>
      </trkpt>
      <trkpt lat="35.040570" lon="-114.357270">
        <ele>1044.918</ele>
        <time>2018-12-28T01:03:53Z</time>
      </trkpt>
      <trkpt lat="35.040610" lon="-114.357270">
        <ele>1045.098</ele>
        <time>2018-12-28T01:04:13Z</time>
      </trkpt>
      <trkpt lat="35.040650" lon="-114.357250">
        <ele>1044.917</ele>
        <time>2018-12-28T01:04:33Z</time>
      </trkpt>
      <trkpt lat="35.040660" lon="-114.357240">
        <ele>1044.808</ele>
        <time>2018-12-28T01:04:53Z</time>
      </trkpt>
      <trkpt lat="35.040680" lon="-114.357230">
        <ele>1044.734</ele>
        <time>2018-12-28T01:05:13Z</time>
      </trkpt>
      <trkpt lat="35.040700" lon="-114.357200">
        <ele>1044.552</ele>
        <time>2018-12-28T01:05:33Z</time>
      </trkpt>
      <trkpt lat="35.040740" lon="-114.357110">
        <ele>1044.537</ele>
        <time>2018-12-28T01:05:53Z</time>
      </trkpt>
      <trkpt lat="35.040860" lon="-114.356770">
        <ele>1044.798</ele>
        <time>2018-12-28T01:06:13Z</time>
      </trkpt>
      <trkpt lat="35.040970" lon="-114.356480">
        <ele>1045.293</ele>
        <time>2018-12-28T01:06:33Z</time>
      </trkpt>
      <trkpt lat="35.041030" lon="-114.356340">
        <ele>1045.534</ele>
        <time>2018-12-28T01:06:53Z</time>
      </trkpt>
      <trkpt lat="35.041090" lon="-114.356240">
        <ele>1045.727</ele>
        <time>2018-12-28T01:07:13Z</time>
      </trkpt>
      <trkpt lat="35.041150" lon="-114.356160">
        <ele>1045.497</ele>
        <time>2018-12-28T01:07:33Z</time>
      </trkpt>
      <trkpt lat="35.041210" lon="-114.356110">
        <ele>1045.429</ele>
        <time>2018-12-28T01:07:53Z</time>
      </trkpt>
      <trkpt lat="35.041270" lon="-114.356090">
        <ele>1045.600</ele>
        <time>2018-12-28T01:08:13Z</time>
      </trkpt>
      <trkpt lat="35.041310" lon="-114.356080">
        <ele>1045.620</ele>
        <time>2018-12-28T01:08:33Z</time>
      </trkpt>
      <trkpt lat="35.041370" lon="-114.356090">
        <ele>1046.308</ele>
        <time>2018-12-28T01:08:53Z</time>
      </trkpt>
      <trkpt lat="35.041460" lon="-114.356130">
        <ele>1048.415</ele>
        <time>2018-12-28T01:09:13Z</time>
      </trkpt>
      <trkpt lat="35.041620" lon="-114.356190">
        <ele>1050.513</ele>
        <time>2018-12-28T01:09:33Z</time>
      </trkpt>
      <trkpt lat="35.041870" lon="-114.356280">
        <ele>1054.178</ele>
        <time>2018-12-28T01:09:53Z</time>
      </trkpt>
      <trkpt lat="35.041970" lon="-114.356340">
        <ele>1059.079</ele>
        <time>2018-12-28T01:10:13Z</time>
      </trkpt>
      <trkpt lat="35.042100" lon="-114.356420">
        <ele>1061.574</ele>
        <time>2018-12-28T01:10:33Z</time>
      </trkpt>
      <trkpt lat="35.042210" lon="-114.356490">
        <ele>1060.475</ele>
        <time>2018-12-28T01:10:53Z</time>
      </trkpt>
      <trkpt lat="35.042310" lon="-114.356580">
        <ele>1059.778</ele>
        <time>2018-12-28T01:11:13Z</time>
      </trkpt>
      <trkpt lat="35.042450" lon="-114.356770">
        <ele>1058.938</ele>
        <time>2018-12-28T01:11:33Z</time>
      </trkpt>
      <trkpt lat="35.042570" lon="-114.356970">
        <ele>1060.155</ele>
        <time>2018-12-28T01:11:53Z</time>
      </trkpt>
      <trkpt lat="35.042730" lon="-114.357240">
        <ele>1061.007</ele>
        <time>2018-12-28T01:12:13Z</time>
      </trkpt>
      <trkpt lat="35.042810" lon="-114.357420">
        <ele>1064.617</ele>
        <time>2018-12-28T01:12:33Z</time>
      </trkpt>
      <trkpt lat="35.042860" lon="-114.357590">
        <ele>1065.808</ele>
        <time>2018-12-28T01:12:53Z</time>
      </trkpt>
      <trkpt lat="35.042910" lon="-114.357740">
        <ele>1065.868</ele>
        <time>2018-12-28T01:13:13Z</time>
      </trkpt>
      <trkpt lat="35.042940" lon="-114.358000">
        <ele>1066.476</ele>
        <time>2018-12-28T01:13:33Z</time>
      </trkpt>
      <trkpt lat="35.042950" lon="-114.358280">
        <ele>1068.461</ele>
        <time>2018-12-28T01:13:53Z</time>
      </trkpt>
      <trkpt lat="35.042960" lon="-114.358380">
        <ele>1069.232</ele>
        <time>2018-12-28T01:14:13Z</time>
      </trkpt>
      <trkpt lat="35.042980" lon="-114.358480">
        <ele>1069.817</ele>
        <time>2018-12-28T01:14:33Z</time>
      </trkpt>
      <trkpt lat="35.043000" lon="-114.358540">
        <ele>1070.688</ele>
        <time>2018-12-28T01:14:53Z</time>
      </trkpt>
      <trkpt lat="35.043020" lon="-114.358600">
        <ele>1071.551</ele>
        <time>2018-12-28T01:15:13Z</time>
      </trkpt>
      <trkpt lat="35.043060" lon="-114.358660">
        <ele>1071.941</ele>
        <time>2018-12-28T01:15:33Z</time>
      </trkpt>
      <trkpt lat="35.043140" lon="-114.358740">
        <ele>1072.145</ele>
        <time>2018-12-28T01:15:53Z</time>
      </trkpt>
      <trkpt lat="35.043240" lon="-114.358800">
        <ele>1073.147</ele>
        <time>2018-12-28T01:16:13Z</time>
      </trkpt>
      <trkpt lat="35.043430" lon="-114.358880">
        <ele>1075.611</ele>
        <time>2018-12-28T01:16:33Z</time>
      </trkpt>
      <trkpt lat="35.043550" lon="-114.358920">
        <ele>1076.708</ele>
        <time>2018-12-28T01:16:53Z</time>
      </trkpt>
      <trkpt lat="35.043640" lon="-114.358950">
        <ele>1077.557</ele>
        <time>2018-12-28T01:17:13Z</time>
      </trkpt>
      <trkpt lat="35.043700" lon="-114.358990">
        <ele>1078.225</ele>
        <time>2018-12-28T01:17:33Z</time>
      </trkpt>
      <trkpt lat="35.043760" lon="-114.359060">
        <ele>1078.950</ele>
        <time>2018-12-28T01:17:53Z</time>
      </trkpt>
      <trkpt lat="35.043810" lon="-114.359170">
        <ele>1078.791</ele>
        <time>2018-12-28T01:18:13Z</time>
      </trkpt>
      <trkpt lat="35.043970" lon="-114.359760">
        <ele>1081.256</ele>
        <time>2018-12-28T01:18:33Z</time>
      </trkpt>
      <trkpt lat="35.044020" lon="-114.359950">
        <ele>1081.577</ele>
        <time>2018-12-28T01:18:53Z</time>
      </trkpt>
      <trkpt lat="35.044080" lon="-114.360100">
        <ele>1082.270</ele>
        <time>2018-12-28T01:19:13Z</time>
      </trkpt>
      <trkpt lat="35.044140" lon="-114.360210">
        <ele>1083.060</ele>
        <time>2018-12-28T01:19:33Z</time>
      </trkpt>
      <trkpt lat="35.044200" lon="-114.360270">
        <ele>1083.254</ele>
        <time>2018-12-28T01:19:53Z</time>
      </trkpt>
      <trkpt lat="35.044280" lon="-114.360340">
        <ele>1083.456</ele>
        <time>2018-12-28T01:20:13Z</time>
      </trkpt>
      <trkpt lat="35.044360" lon="-114.360360">
        <ele>1083.711</ele>
        <time>2018-12-28T01:20:33Z</time>
      </trkpt>
      <trkpt lat="35.044410" lon="-114.360370">
        <ele>1084.208</ele>
        <time>2018-12-28T01:20:53Z</time>
      </trkpt>
      <trkpt lat="35.044500" lon="-114.360350">
        <ele>1084.458</ele>
        <time>2018-12-28T01:21:13Z</time>
      </trkpt>
      <trkpt lat="35.044710" lon="-114.360250">
        <ele>1084.886</ele>
        <time>2018-12-28T01:21:33Z</time>
      </trkpt>
      <trkpt lat="35.044860" lon="-114.360170">
        <ele>1084.061</ele>
        <time>2018-12-28T01:21:53Z</time>
      </trkpt>
      <trkpt lat="35.045050" lon="-114.360100">
        <ele>1083.792</ele>
        <time>2018-12-28T01:22:13Z</time>
      </trkpt>
      <trkpt lat="35.045160" lon="-114.360060">
        <ele>1085.047</ele>
        <time>2018-12-28T01:22:33Z</time>
      </trkpt>
      <trkpt lat="35.045230" lon="-114.360060">
        <ele>1087.538</ele>
        <time>2018-12-28T01:22:53Z</time>
      </trkpt>
      <trkpt lat="35.045320" lon="-114.360060">
        <ele>1090.631</ele>
        <time>2018-12-28T01:23:13Z</time>
      </trkpt>
      <trkpt lat="35.045360" lon="-114.360080">
        <ele>1092.491</ele>
        <time>2018-12-28T01:23:33Z</time>
      </trkpt>
      <trkpt lat="35.045410" lon="-114.360110">
        <ele>1094.919</ele>
        <time>2018-12-28T01:23:53Z</time>
      </trkpt>
      <trkpt lat="35.045490" lon="-114.360180">
        <ele>1096.509</ele>
        <time>2018-12-28T01:24:13Z</time>
      </trkpt>
      <trkpt lat="35.045590" lon="-114.360320">
        <ele>1096.819</ele>
        <time>2018-12-28T01:24:33Z</time>
      </trkpt>
      <trkpt lat="35.045700" lon="-114.360460">
        <ele>1094.608</ele>
        <time>2018-12-28T01:24:53Z</time>
      </trkpt>
      <trkpt lat="35.045780" lon="-114.360540">
        <ele>1093.074</ele>
        <time>2018-12-28T01:25:13Z</time>
      </trkpt>
      <trkpt lat="35.045880" lon="-114.360630">
        <ele>1090.882</ele>
        <time>2018-12-28T01:25:33Z</time>
      </trkpt>
      <trkpt lat="35.046040" lon="-114.360730">
        <ele>1088.727</ele>
        <time>2018-12-28T01:25:53Z</time>
      </trkpt>
      <trkpt lat="35.046210" lon="-114.360840">
        <ele>1088.588</ele>
        <time>2018-12-28T01:26:13Z</time>
      </trkpt>
      <trkpt lat="35.046450" lon="-114.361030">
        <ele>1084.273</ele>
        <time>2018-12-28T01:26:33Z</time>
      </trkpt>
      <trkpt lat="35.046670" lon="-114.361190">
        <ele>1080.834</ele>
        <time>2018-12-28T01:26:53Z</time>
      </trkpt>
      <trkpt lat="35.046760" lon="-114.361280">
        <ele>1079.967</ele>
        <time>2018-12-28T01:27:13Z</time>
      </trkpt>
      <trkpt lat="35.046810" lon="-114.361360">
        <ele>1079.497</ele>
        <time>2018-12-28T01:27:33Z</time>
      </trkpt>
      <trkpt lat="35.046850" lon="-114.361450">
        <ele>1079.145</ele>
        <time>2018-12-28T01:27:53Z</time>
      </trkpt>
      <trkpt lat="35.046870" lon="-114.361500">
        <ele>1078.947</ele>
        <time>2018-12-28T01:28:13Z</time>
      </trkpt>
      <trkpt lat="35.046870" lon="-114.361620">
        <ele>1077.911</ele>
        <time>2018-12-28T01:28:33Z</time>
      </trkpt>
      <trkpt lat="35.046870" lon="-114.361850">
        <ele>1076.408</ele>
        <time>2018-12-28T01:28:53Z</time>
      </trkpt>
      <trkpt lat="35.046870" lon="-114.361970">
        <ele>1075.917</ele>
        <time>2018-12-28T01:29:13Z</time>
      </trkpt>
      <trkpt lat="35.046870" lon="-114.362120">
        <ele>1075.115</ele>
        <time>2018-12-28T01:29:33Z</time>
      </trkpt>
      <trkpt lat="35.046900" lon="-114.362250">
        <ele>1074.140</ele>
        <time>2018-12-28T01:29:53Z</time>
      </trkpt>
      <trkpt lat="35.046960" lon="-114.362390">
        <ele>1072.861</ele>
        <time>2018-12-28T01:30:13Z</time>
      </trkpt>
      <trkpt lat="35.047030" lon="-114.362550">
        <ele>1071.476</ele>
        <time>2018-12-28T01:30:33Z</time>
      </trkpt>
      <trkpt lat="35.047150" lon="-114.362790">
        <ele>1069.497</ele>
        <time>2018-12-28T01:30:53Z</time>
      </trkpt>
      <trkpt lat="35.047190" lon="-114.362880">
        <ele>1068.240</ele>
        <time>2018-12-28T01:31:13Z</time>
      </trkpt>
      <trkpt lat="35.047200" lon="-114.362950">
        <ele>1067.440</ele>
        <time>2018-12-28T01:31:33Z</time>
      </trkpt>
      <trkpt lat="35.047200" lon="-114.363000">
        <ele>1066.925</ele>
        <time>2018-12-28T01:31:53Z</time>
      </trkpt>
      <trkpt lat="35.047190" lon="-114.363060">
        <ele>1066.526</ele>
        <time>2018-12-28T01:32:13Z</time>
      </trkpt>
      <trkpt lat="35.047180" lon="-114.363080">
        <ele>1066.308</ele>
        <time>2018-12-28T01:32:33Z</time>
      </trkpt>
      <trkpt lat="35.047170" lon="-114.363100">
        <ele>1066.208</ele>
        <time>2018-12-28T01:32:53Z</time>
      </trkpt>
      <trkpt lat="35.047140" lon="-114.363130">
        <ele>1066.125</ele>
        <time>2018-12-28T01:33:13Z</time>
      </trkpt>
      <trkpt lat="35.047110" lon="-114.363140">
        <ele>1066.233</ele>
        <time>2018-12-28T01:33:33Z</time>
      </trkpt>
      <trkpt lat="35.047100" lon="-114.363150">
        <ele>1066.268</ele>
        <time>2018-12-28T01:33:53Z</time>
      </trkpt>
      <trkpt lat="35.047080" lon="-114.363150">
        <ele>1066.379</ele>
        <time>2018-12-28T01:34:13Z</time>
      </trkpt>
      <trkpt lat="35.047050" lon="-114.363150">
        <ele>1066.164</ele>
        <time>2018-12-28T01:34:33Z</time>
      </trkpt>
      <trkpt lat="35.047020" lon="-114.363130">
        <ele>1065.925</ele>
        <time>2018-12-28T01:34:53Z</time>
      </trkpt>
      <trkpt lat="35.046980" lon="-114.363100">
        <ele>1065.818</ele>
        <time>2018-12-28T01:35:13Z</time>
      </trkpt>
      <trkpt lat="35.046920" lon="-114.363020">
        <ele>1065.588</ele>
        <time>2018-12-28T01:35:33Z</time>
      </trkpt>
      <trkpt lat="35.046860" lon="-114.362920">
        <ele>1064.967</ele>
        <time>2018-12-28T01:35:53Z</time>
      </trkpt>
      <trkpt lat="35.046810" lon="-114.362850">
        <ele>1065.181</ele>
        <time>2018-12-28T01:36:13Z</time>
      </trkpt>
      <trkpt lat="35.046780" lon="-114.362810">
        <ele>1064.919</ele>
        <time>2018-12-28T01:36:33Z</time>
      </trkpt>
      <trkpt lat="35.046700" lon="-114.362750">
        <ele>1063.508</ele>
        <time>2018-12-28T01:36:53Z</time>
      </trkpt>
      <trkpt lat="35.046520" lon="-114.362620">
        <ele>1059.759</ele>
        <time>2018-12-28T01:37:13Z</time>
      </trkpt>
      <trkpt lat="35.046240" lon="-114.362410">
        <ele>1055.017</ele>
        <time>2018-12-28T01:37:33Z</time>
      </trkpt>
      <trkpt lat="35.046090" lon="-114.362300">
        <ele>1054.382</ele>
        <time>2018-12-28T01:37:53Z</time>
      </trkpt>
      <trkpt lat="35.046000" lon="-114.362260">
        <ele>1053.883</ele>
        <time>2018-12-28T01:38:13Z</time>
      </trkpt>
      <trkpt lat="35.045940" lon="-114.362250">
        <ele>1054.028</ele>
        <time>2018-12-28T01:38:33Z</time>
      </trkpt>
      <trkpt lat="35.045860" lon="-114.362270">
        <ele>1054.499</ele>
        <time>2018-12-28T01:38:53Z</time>
      </trkpt>
      <trkpt lat="35.045810" lon="-114.362290">
        <ele>1054.682</ele>
        <time>2018-12-28T01:39:13Z</time>
      </trkpt>
      <trkpt lat="35.045780" lon="-114.362320">
        <ele>1054.522</ele>
        <time>2018-12-28T01:39:33Z</time>
      </trkpt>
      <trkpt lat="35.045750" lon="-114.362360">
        <ele>1054.343</ele>
        <time>2018-12-28T01:39:53Z</time>
      </trkpt>
      <trkpt lat="35.045730" lon="-114.362390">
        <ele>1054.264</ele>
        <time>2018-12-28T01:40:13Z</time>
      </trkpt>
      <trkpt lat="35.045720" lon="-114.362430">
        <ele>1054.010</ele>
        <time>2018-12-28T01:40:33Z</time>
      </trkpt>
      <trkpt lat="35.045710" lon="-114.362470">
        <ele>1053.808</ele>
        <time>2018-12-28T01:40:53Z</time>
      </trkpt>
      <trkpt lat="35.045700" lon="-114.362510">
        <ele>1053.617</ele>
        <time>2018-12-28T01:41:13Z</time>
      </trkpt>
      <trkpt lat="35.045700" lon="-114.362580">
        <ele>1053.025</ele>
        <time>2018-12-28T01:41:33Z</time>
      </trkpt>
      <trkpt lat="35.045700" lon="-114.362650">
        <ele>1052.440</ele>
        <time>2018-12-28T01:41:53Z</time>
      </trkpt>
      <trkpt lat="35.045710" lon="-114.362830">
        <ele>1050.721</ele>
        <time>2018-12-28T01:42:13Z</time>
      </trkpt>
      <trkpt lat="35.045740" lon="-114.362950">
        <ele>1049.486</ele>
        <time>2018-12-28T01:42:33Z</time>
      </trkpt>
      <trkpt lat="35.045830" lon="-114.363280">
        <ele>1045.917</ele>
        <time>2018-12-28T01:42:53Z</time>
      </trkpt>
      <trkpt lat="35.045840" lon="-114.363340">
        <ele>1045.060</ele>
        <time>2018-12-28T01:43:13Z</time>
      </trkpt>
      <trkpt lat="35.045850" lon="-114.363390">
        <ele>1044.350</ele>
        <time>2018-12-28T01:43:33Z</time>
      </trkpt>
      <trkpt lat="35.045850" lon="-114.363480">
        <ele>1043.171</ele>
        <time>2018-12-28T01:43:53Z</time>
      </trkpt>
      <trkpt lat="35.045830" lon="-114.363630">
        <ele>1041.741</ele>
        <time>2018-12-28T01:44:13Z</time>
      </trkpt>
      <trkpt lat="35.045800" lon="-114.363740">
        <ele>1041.115</ele>
        <time>2018-12-28T01:44:33Z</time>
      </trkpt>
      <trkpt lat="35.045760" lon="-114.363870">
        <ele>1040.808</ele>
        <time>2018-12-28T01:44:53Z</time>
      </trkpt>
      <trkpt lat="35.045650" lon="-114.364080">
        <ele>1039.750</ele>
        <time>2018-12-28T01:45:13Z</time>
      </trkpt>
      <trkpt lat="35.045570" lon="-114.364240">
        <ele>1036.338</ele>
        <time>2018-12-28T01:45:33Z</time>
      </trkpt>
      <trkpt lat="35.045480" lon="-114.364380">
        <ele>1032.193</ele>
        <time>2018-12-28T01:45:53Z</time>
      </trkpt>
      <trkpt lat="35.045410" lon="-114.364470">
        <ele>1030.314</ele>
        <time>2018-12-28T01:46:13Z</time>
      </trkpt>
      <trkpt lat="35.045310" lon="-114.364560">
        <ele>1029.689</ele>
        <time>2018-12-28T01:46:33Z</time>
      </trkpt>
      <trkpt lat="35.045200" lon="-114.364610">
        <ele>1029.350</ele>
        <time>2018-12-28T01:46:53Z</time>
      </trkpt>
      <trkpt lat="35.045150" lon="-114.364630">
        <ele>1029.463</ele>
        <time>2018-12-28T01:47:13Z</time>
      </trkpt>
      <trkpt lat="35.045110" lon="-114.364660">
        <ele>1029.353</ele>
        <time>2018-12-28T01:47:33Z</time>
      </trkpt>
      <trkpt lat="35.045040" lon="-114.364730">
        <ele>1029.298</ele>
        <time>2018-12-28T01:47:53Z</time>
      </trkpt>
      <trkpt lat="35.044980" lon="-114.364820">
        <ele>1029.415</ele>
        <time>2018-12-28T01:48:13Z</time>
      </trkpt>
      <trkpt lat="35.044880" lon="-114.365060">
        <ele>1029.426</ele>
        <time>2018-12-28T01:48:33Z</time>
      </trkpt>
      <trkpt lat="35.044750" lon="-114.365390">
        <ele>1027.008</ele>
        <time>2018-12-28T01:48:53Z</time>
      </trkpt>
      <trkpt lat="35.044600" lon="-114.365800">
        <ele>1027.342</ele>
        <time>2018-12-28T01:49:13Z</time>
      </trkpt>
      <trkpt lat="35.044480" lon="-114.366110">
        <ele>1023.460</ele>
        <time>2018-12-28T01:49:33Z</time>
      </trkpt>
      <trkpt lat="35.044430" lon="-114.366270">
        <ele>1021.475</ele>
        <time>2018-12-28T01:49:53Z</time>
      </trkpt>
      <trkpt lat="35.044410" lon="-114.366480">
        <ele>1021.466</ele>
        <time>2018-12-28T01:50:13Z</time>
      </trkpt>
      <trkpt lat="35.044410" lon="-114.366770">
        <ele>1020.381</ele>
        <time>2018-12-28T01:50:33Z</time>
      </trkpt>
      <trkpt lat="35.044350" lon="-114.367270">
        <ele>1019.062</ele>
        <time>2018-12-28T01:50:53Z</time>
      </trkpt>
      <trkpt lat="35.044270" lon="-114.367620">
        <ele>1020.435</ele>
        <time>2018-12-28T01:51:13Z</time>
      </trkpt>
      <trkpt lat="35.044190" lon="-114.367850">
        <ele>1018.595</ele>
        <time>2018-12-28T01:51:33Z</time>
      </trkpt>
      <trkpt lat="35.044120" lon="-114.368010">
        <ele>1016.664</ele>
        <time>2018-12-28T01:51:53Z</time>
      </trkpt>
      <trkpt lat="35.044080" lon="-114.368090">
        <ele>1016.306</ele>
        <time>2018-12-28T01:52:13Z</time>
      </trkpt>
      <trkpt lat="35.044010" lon="-114.368180">
        <ele>1017.216</ele>
        <time>2018-12-28T01:52:33Z</time>
      </trkpt>
      <trkpt lat="35.043960" lon="-114.368210">
        <ele>1016.708</ele>
        <time>2018-12-28T01:52:53Z</time>
      </trkpt>
      <trkpt lat="35.043910" lon="-114.368230">
        <ele>1016.139</ele>
        <time>2018-12-28T01:53:13Z</time>
      </trkpt>
      <trkpt lat="35.043830" lon="-114.368240">
        <ele>1015.557</ele>
        <time>2018-12-28T01:53:33Z</time>
      </trkpt>
      <trkpt lat="35.043680" lon="-114.368230">
        <ele>1015.062</ele>
        <time>2018-12-28T01:53:53Z</time>
      </trkpt>
      <trkpt lat="35.043590" lon="-114.368210">
        <ele>1015.393</ele>
        <time>2018-12-28T01:54:13Z</time>
      </trkpt>
      <trkpt lat="35.043460" lon="-114.368180">
        <ele>1015.528</ele>
        <time>2018-12-28T01:54:33Z</time>
      </trkpt>
      <trkpt lat="35.043360" lon="-114.368180">
        <ele>1015.269</ele>
        <time>2018-12-28T01:54:53Z</time>
      </trkpt>
      <trkpt lat="35.043310" lon="-114.368210">
        <ele>1014.442</ele>
        <time>2018-12-28T01:55:13Z</time>
      </trkpt>
      <trkpt lat="35.043180" lon="-114.368270">
        <ele>1014.142</ele>
        <time>2018-12-28T01:55:33Z</time>
      </trkpt>
      <trkpt lat="35.043130" lon="-114.368370">
        <ele>1014.057</ele>
        <time>2018-12-28T01:55:53Z</time>
      </trkpt>
      <trkpt lat="35.043070" lon="-114.368540">
        <ele>1015.400</ele>
        <time>2018-12-28T01:56:13Z</time>
      </trkpt>
      <trkpt lat="35.043000" lon="-114.368720">
        <ele>1017.720</ele>
        <time>2018-12-28T01:56:33Z</time>
      </trkpt>
      <trkpt lat="35.042940" lon="-114.368880">
        <ele>1018.208</ele>
        <time>2018-12-28T01:56:53Z</time>
      </trkpt>
      <trkpt lat="35.042840" lon="-114.369060">
        <ele>1017.778</ele>
        <time>2018-12-28T01:57:13Z</time>
      </trkpt>
      <trkpt lat="35.042660" lon="-114.369270">
        <ele>1013.996</ele>
        <time>2018-12-28T01:57:33Z</time>
      </trkpt>
      <trkpt lat="35.042550" lon="-114.369430">
        <ele>1013.351</ele>
        <time>2018-12-28T01:57:53Z</time>
      </trkpt>
      <trkpt lat="35.042460" lon="-114.369650">
        <ele>1011.842</ele>
        <time>2018-12-28T01:58:13Z</time>
      </trkpt>
      <trkpt lat="35.042410" lon="-114.369800">
        <ele>1010.197</ele>
        <time>2018-12-28T01:58:33Z</time>
      </trkpt>
      <trkpt lat="35.042300" lon="-114.370030">
        <ele>1006.238</ele>
        <time>2018-12-28T01:58:53Z</time>
      </trkpt>
      <trkpt lat="35.042230" lon="-114.370170">
        <ele>1004.491</ele>
        <time>2018-12-28T01:59:13Z</time>
      </trkpt>
      <trkpt lat="35.042060" lon="-114.370450">
        <ele>1001.851</ele>
        <time>2018-12-28T01:59:33Z</time>
      </trkpt>
      <trkpt lat="35.041890" lon="-114.370710">
        <ele>996.129</ele>
        <time>2018-12-28T01:59:53Z</time>
      </trkpt>
      <trkpt lat="35.041720" lon="-114.370950">
        <ele>993.600</ele>
        <time>2018-12-28T02:00:13Z</time>
      </trkpt>
      <trkpt lat="35.041580" lon="-114.371170">
        <ele>993.420</ele>
        <time>2018-12-28T02:00:33Z</time>
      </trkpt>
      <trkpt lat="35.041480" lon="-114.371360">
        <ele>993.908</ele>
        <time>2018-12-28T02:00:53Z</time>
      </trkpt>
      <trkpt lat="35.041430" lon="-114.371530">
        <ele>992.065</ele>
        <time>2018-12-28T02:01:13Z</time>
      </trkpt>
      <trkpt lat="35.041380" lon="-114.371710">
        <ele>989.023</ele>
        <time>2018-12-28T02:01:33Z</time>
      </trkpt>
      <trkpt lat="35.041350" lon="-114.371800">
        <ele>988.268</ele>
        <time>2018-12-28T02:01:53Z</time>
      </trkpt>
      <trkpt lat="35.041320" lon="-114.371860">
        <ele>987.969</ele>
        <time>2018-12-28T02:02:13Z</time>
      </trkpt>
      <trkpt lat="35.041280" lon="-114.371930">
        <ele>987.324</ele>
        <time>2018-12-28T02:02:33Z</time>
      </trkpt>
      <trkpt lat="35.041230" lon="-114.371970">
        <ele>987.045</ele>
        <time>2018-12-28T02:02:53Z</time>
      </trkpt>
      <trkpt lat="35.041180" lon="-114.371990">
        <ele>986.288</ele>
        <time>2018-12-28T02:03:13Z</time>
      </trkpt>
      <trkpt lat="35.041130" lon="-114.372010">
        <ele>985.518</ele>
        <time>2018-12-28T02:03:33Z</time>
      </trkpt>
      <trkpt lat="35.041070" lon="-114.372020">
        <ele>985.269</ele>
        <time>2018-12-28T02:03:53Z</time>
      </trkpt>
      <trkpt lat="35.041000" lon="-114.372020">
        <ele>985.304</ele>
        <time>2018-12-28T02:04:13Z</time>
      </trkpt>
      <trkpt lat="35.040950" lon="-114.372040">
        <ele>985.124</ele>
        <time>2018-12-28T02:04:33Z</time>
      </trkpt>
      <trkpt lat="35.040910" lon="-114.372060">
        <ele>985.308</ele>
        <time>2018-12-28T02:04:53Z</time>
      </trkpt>
      <trkpt lat="35.040870" lon="-114.372090">
        <ele>985.789</ele>
        <time>2018-12-28T02:05:13Z</time>
      </trkpt>
      <trkpt lat="35.040830" lon="-114.372150">
        <ele>985.867</ele>
        <time>2018-12-28T02:05:33Z</time>
      </trkpt>
      <trkpt lat="35.040800" lon="-114.372230">
        <ele>985.232</ele>
        <time>2018-12-28T02:05:53Z</time>
      </trkpt>
      <trkpt lat="35.040780" lon="-114.372350">
        <ele>983.683</ele>
        <time>2018-12-28T02:06:13Z</time>
      </trkpt>
      <trkpt lat="35.040780" lon="-114.372470">
        <ele>982.968</ele>
        <time>2018-12-28T02:06:33Z</time>
      </trkpt>
      <trkpt lat="35.040770" lon="-114.372550">
        <ele>982.719</ele>
        <time>2018-12-28T02:06:53Z</time>
      </trkpt>
      <trkpt lat="35.040750" lon="-114.372640">
        <ele>982.692</ele>
        <time>2018-12-28T02:07:13Z</time>
      </trkpt>
      <trkpt lat="35.040700" lon="-114.372770">
        <ele>983.552</ele>
        <time>2018-12-28T02:07:33Z</time>
      </trkpt>
      <trkpt lat="35.040650" lon="-114.372930">
        <ele>984.628</ele>
        <time>2018-12-28T02:07:53Z</time>
      </trkpt>
      <trkpt lat="35.040640" lon="-114.373020">
        <ele>985.889</ele>
        <time>2018-12-28T02:08:13Z</time>
      </trkpt>
      <trkpt lat="35.040650" lon="-114.373140">
        <ele>987.117</ele>
        <time>2018-12-28T02:08:33Z</time>
      </trkpt>
      <trkpt lat="35.040680" lon="-114.373250">
        <ele>987.508</ele>
        <time>2018-12-28T02:08:53Z</time>
      </trkpt>
      <trkpt lat="35.040780" lon="-114.373480">
        <ele>985.665</ele>
        <time>2018-12-28T02:09:13Z</time>
      </trkpt>
      <trkpt lat="35.040990" lon="-114.373900">
        <ele>977.913</ele>
        <time>2018-12-28T02:09:33Z</time>
      </trkpt>
      <trkpt lat="35.041040" lon="-114.373990">
        <ele>977.738</ele>
        <time>2018-12-28T02:09:53Z</time>
      </trkpt>
      <trkpt lat="35.041110" lon="-114.374110">
        <ele>978.329</ele>
        <time>2018-12-28T02:10:13Z</time>
      </trkpt>
      <trkpt lat="35.041180" lon="-114.374210">
        <ele>978.334</ele>
        <time>2018-12-28T02:10:33Z</time>
      </trkpt>
      <trkpt lat="35.041260" lon="-114.374300">
        <ele>977.375</ele>
        <time>2018-12-28T02:10:53Z</time>
      </trkpt>
      <trkpt lat="35.041350" lon="-114.374370">
        <ele>977.198</ele>
        <time>2018-12-28T02:11:13Z</time>
      </trkpt>
      <trkpt lat="35.041500" lon="-114.374440">
        <ele>975.918</ele>
        <time>2018-12-28T02:11:33Z</time>
      </trkpt>
      <trkpt lat="35.041670" lon="-114.374510">
        <ele>974.622</ele>
        <time>2018-12-28T02:11:53Z</time>
      </trkpt>
      <trkpt lat="35.041820" lon="-114.374600">
        <ele>974.562</ele>
        <time>2018-12-28T02:12:13Z</time>
      </trkpt>
      <trkpt lat="35.041970" lon="-114.374690">
        <ele>973.808</ele>
        <time>2018-12-28T02:12:33Z</time>
      </trkpt>
      <trkpt lat="35.042070" lon="-114.374780">
        <ele>972.308</ele>
        <time>2018-12-28T02:12:53Z</time>
      </trkpt>
      <trkpt lat="35.042190" lon="-114.374890">
        <ele>969.295</ele>
        <time>2018-12-28T02:13:13Z</time>
      </trkpt>
      <trkpt lat="35.042280" lon="-114.375010">
        <ele>965.983</ele>
        <time>2018-12-28T02:13:33Z</time>
      </trkpt>
      <trkpt lat="35.042350" lon="-114.375140">
        <ele>960.858</ele>
        <time>2018-12-28T02:13:53Z</time>
      </trkpt>
      <trkpt lat="35.042400" lon="-114.375230">
        <ele>959.039</ele>
        <time>2018-12-28T02:14:13Z</time>
      </trkpt>
      <trkpt lat="35.042460" lon="-114.375390">
        <ele>957.914</ele>
        <time>2018-12-28T02:14:33Z</time>
      </trkpt>
      <trkpt lat="35.042470" lon="-114.375450">
        <ele>958.085</ele>
        <time>2018-12-28T02:14:53Z</time>
      </trkpt>
      <trkpt lat="35.042470" lon="-114.375490">
        <ele>958.368</ele>
        <time>2018-12-28T02:15:13Z</time>
      </trkpt>
      <trkpt lat="35.042460" lon="-114.375590">
        <ele>959.128</ele>
        <time>2018-12-28T02:15:33Z</time>
      </trkpt>
      <trkpt lat="35.042460" lon="-114.375690">
        <ele>959.841</ele>
        <time>2018-12-28T02:15:53Z</time>
      </trkpt>
      <trkpt lat="35.042460" lon="-114.375740">
        <ele>960.581</ele>
        <time>2018-12-28T02:16:13Z</time>
      </trkpt>
      <trkpt lat="35.042470" lon="-114.375750">
        <ele>960.509</ele>
        <time>2018-12-28T02:16:33Z</time>
      </trkpt>
      <trkpt lat="35.042470" lon="-114.375770">
        <ele>960.908</ele>
        <time>2018-12-28T02:16:53Z</time>
      </trkpt>
      <trkpt lat="35.042490" lon="-114.375790">
        <ele>960.947</ele>
        <time>2018-12-28T02:17:13Z</time>
      </trkpt>
      <trkpt lat="35.042500" lon="-114.375800">
        <ele>960.945</ele>
        <time>2018-12-28T02:17:33Z</time>
      </trkpt>
      <trkpt lat="35.042520" lon="-114.375800">
        <ele>960.640</ele>
        <time>2018-12-28T02:17:53Z</time>
      </trkpt>
      <trkpt lat="35.042530" lon="-114.375810">
        <ele>960.711</ele>
        <time>2018-12-28T02:18:13Z</time>
      </trkpt>
      <trkpt lat="35.042550" lon="-114.375800">
        <ele>960.276</ele>
        <time>2018-12-28T02:18:33Z</time>
      </trkpt>
      <trkpt lat="35.042590" lon="-114.375790">
        <ele>959.587</ele>
        <time>2018-12-28T02:18:53Z</time>
      </trkpt>
      <trkpt lat="35.042600" lon="-114.375780">
        <ele>959.260</ele>
        <time>2018-12-28T02:19:13Z</time>
      </trkpt>
      <trkpt lat="35.042610" lon="-114.375780">
        <ele>959.090</ele>
        <time>2018-12-28T02:19:33Z</time>
      </trkpt>
      <trkpt lat="35.042610" lon="-114.375770">
        <ele>958.928</ele>
        <time>2018-12-28T02:19:53Z</time>
      </trkpt>
      <trkpt lat="35.042620" lon="-114.375750">
        <ele>958.489</ele>
        <time>2018-12-28T02:20:13Z</time>
      </trkpt>
      <trkpt lat="35.042620" lon="-114.375720">
        <ele>957.817</ele>
        <time>2018-12-28T02:20:33Z</time>
      </trkpt>
      <trkpt lat="35.042630" lon="-114.375680">
        <ele>957.108</ele>
        <time>2018-12-28T02:20:53Z</time>
      </trkpt>
      <trkpt lat="35.042630" lon="-114.375590">
        <ele>956.035</ele>
        <time>2018-12-28T02:21:13Z</time>
      </trkpt>
      <trkpt lat="35.042610" lon="-114.375490">
        <ele>955.393</ele>
        <time>2018-12-28T02:21:33Z</time>
      </trkpt>
      <trkpt lat="35.042580" lon="-114.375300">
        <ele>954.518</ele>
        <time>2018-12-28T02:21:53Z</time>
      </trkpt>
      <trkpt lat="35.042550" lon="-114.375150">
        <ele>954.529</ele>
        <time>2018-12-28T02:22:13Z</time>
      </trkpt>
      <trkpt lat="35.042500" lon="-114.374970">
        <ele>954.554</ele>
        <time>2018-12-28T02:22:33Z</time>
      </trkpt>
      <trkpt lat="35.042390" lon="-114.374620">
        <ele>952.035</ele>
        <time>2018-12-28T02:22:53Z</time>
      </trkpt>
      <trkpt lat="35.042340" lon="-114.374450">
        <ele>949.118</ele>
        <time>2018-12-28T02:23:13Z</time>
      </trkpt>
      <trkpt lat="35.042320" lon="-114.374330">
        <ele>946.078</ele>
        <time>2018-12-28T02:23:33Z</time>
      </trkpt>
      <trkpt lat="35.042320" lon="-114.374260">
        <ele>944.976</ele>
        <time>2018-12-28T02:23:53Z</time>
      </trkpt>
      <trkpt lat="35.042330" lon="-114.374190">
        <ele>944.390</ele>
        <time>2018-12-28T02:24:13Z</time>
      </trkpt>
      <trkpt lat="35.042350" lon="-114.374150">
        <ele>943.519</ele>
        <time>2018-12-28T02:24:33Z</time>
      </trkpt>
      <trkpt lat="35.042360" lon="-114.374110">
        <ele>943.008</ele>
        <time>2018-12-28T02:24:53Z</time>
      </trkpt>
      <trkpt lat="35.042400" lon="-114.374070">
        <ele>942.430</ele>
        <time>2018-12-28T02:25:13Z</time>
      </trkpt>
      <trkpt lat="35.042430" lon="-114.374050">
        <ele>942.088</ele>
        <time>2018-12-28T02:25:33Z</time>
      </trkpt>
      <trkpt lat="35.042480" lon="-114.374040">
        <ele>941.513</ele>
        <time>2018-12-28T02:25:53Z</time>
      </trkpt>
      <trkpt lat="35.042540" lon="-114.374040">
        <ele>940.924</ele>
        <time>2018-12-28T02:26:13Z</time>
      </trkpt>
      <trkpt lat="35.042590" lon="-114.374050">
        <ele>940.389</ele>
        <time>2018-12-28T02:26:33Z</time>
      </trkpt>
      <trkpt lat="35.042630" lon="-114.374070">
        <ele>939.790</ele>
        <time>2018-12-28T02:26:53Z</time>
      </trkpt>
      <trkpt lat="35.042660" lon="-114.374110">
        <ele>939.333</ele>
        <time>2018-12-28T02:27:13Z</time>
      </trkpt>
      <trkpt lat="35.042680" lon="-114.374170">
        <ele>938.793</ele>
        <time>2018-12-28T02:27:33Z</time>
      </trkpt>
      <trkpt lat="35.042690" lon="-114.374220">
        <ele>938.396</ele>
        <time>2018-12-28T02:27:53Z</time>
      </trkpt>
      <trkpt lat="35.042690" lon="-114.374320">
        <ele>937.631</ele>
        <time>2018-12-28T02:28:13Z</time>
      </trkpt>
      <trkpt lat="35.042690" lon="-114.374410">
        <ele>937.724</ele>
        <time>2018-12-28T02:28:33Z</time>
      </trkpt>
      <trkpt lat="35.042680" lon="-114.374510">
        <ele>938.208</ele>
        <time>2018-12-28T02:28:53Z</time>
      </trkpt>
      <trkpt lat="35.042690" lon="-114.374620">
        <ele>938.632</ele>
        <time>2018-12-28T02:29:13Z</time>
      </trkpt>
      <trkpt lat="35.042730" lon="-114.374740">
        <ele>938.110</ele>
        <time>2018-12-28T02:29:33Z</time>
      </trkpt>
      <trkpt lat="35.042800" lon="-114.374830">
        <ele>934.685</ele>
        <time>2018-12-28T02:29:53Z</time>
      </trkpt>
      <trkpt lat="35.042900" lon="-114.374940">
        <ele>929.436</ele>
        <time>2018-12-28T02:30:13Z</time>
      </trkpt>
      <trkpt lat="35.043080" lon="-114.375080">
        <ele>926.441</ele>
        <time>2018-12-28T02:30:33Z</time>
      </trkpt>
      <trkpt lat="35.043280" lon="-114.375200">
        <ele>923.612</ele>
        <time>2018-12-28T02:30:53Z</time>
      </trkpt>
      <trkpt lat="35.043520" lon="-114.375290">
        <ele>920.375</ele>
        <time>2018-12-28T02:31:13Z</time>
      </trkpt>
      <trkpt lat="35.043660" lon="-114.375340">
        <ele>917.565</ele>
        <time>2018-12-28T02:31:33Z</time>
      </trkpt>
      <trkpt lat="35.043710" lon="-114.375380">
        <ele>916.367</ele>
        <time>2018-12-28T02:31:53Z</time>
      </trkpt>
      <trkpt lat="35.043740" lon="-114.375420">
        <ele>915.581</ele>
        <time>2018-12-28T02:32:13Z</time>
      </trkpt>
      <trkpt lat="35.043780" lon="-114.375490">
        <ele>915.219</ele>
        <time>2018-12-28T02:32:33Z</time>
      </trkpt>
      <trkpt lat="35.043800" lon="-114.375590">
        <ele>915.208</ele>
        <time>2018-12-28T02:32:53Z</time>
      </trkpt>
      <trkpt lat="35.043820" lon="-114.375760">
        <ele>914.959</ele>
        <time>2018-12-28T02:33:13Z</time>
      </trkpt>
      <trkpt lat="35.043840" lon="-114.375880">
        <ele>914.337</ele>
        <time>2018-12-28T02:33:33Z</time>
      </trkpt>
      <trkpt lat="35.043880" lon="-114.376000">
        <ele>913.072</ele>
        <time>2018-12-28T02:33:53Z</time>
      </trkpt>
      <trkpt lat="35.043920" lon="-114.376150">
        <ele>910.723</ele>
        <time>2018-12-28T02:34:13Z</time>
      </trkpt>
      <trkpt lat="35.044010" lon="-114.376370">
        <ele>905.418</ele>
        <time>2018-12-28T02:34:33Z</time>
      </trkpt>
      <trkpt lat="35.044090" lon="-114.376580">
        <ele>901.259</ele>
        <time>2018-12-28T02:34:53Z</time>
      </trkpt>
      <trkpt lat="35.044130" lon="-114.376640">
        <ele>900.682</ele>
        <time>2018-12-28T02:35:13Z</time>
      </trkpt>
      <trkpt lat="35.044160" lon="-114.376690">
        <ele>900.112</ele>
        <time>2018-12-28T02:35:33Z</time>
      </trkpt>
      <trkpt lat="35.044200" lon="-114.376740">
        <ele>899.596</ele>
        <time>2018-12-28T02:35:53Z</time>
      </trkpt>
      <trkpt lat="35.044240" lon="-114.376780">
        <ele>898.931</ele>
        <time>2018-12-28T02:36:13Z</time>
      </trkpt>
      <trkpt lat="35.044270" lon="-114.376800">
        <ele>898.524</ele>
        <time>2018-12-28T02:36:33Z</time>
      </trkpt>
      <trkpt lat="35.044300" lon="-114.376810">
        <ele>898.208</ele>
        <time>2018-12-28T02:36:53Z</time>
      </trkpt>
      <trkpt lat="35.044340" lon="-114.376820">
        <ele>898.012</ele>
        <time>2018-12-28T02:37:13Z</time>
      </trkpt>
      <trkpt lat="35.044380" lon="-114.376820">
        <ele>897.890</ele>
        <time>2018-12-28T02:37:33Z</time>
      </trkpt>
      <trkpt lat="35.044410" lon="-114.376820">
        <ele>897.615</ele>
        <time>2018-12-28T02:37:53Z</time>
      </trkpt>
      <trkpt lat="35.044460" lon="-114.376810">
        <ele>897.266</ele>
        <time>2018-12-28T02:38:13Z</time>
      </trkpt>
      <trkpt lat="35.044540" lon="-114.376790">
        <ele>896.831</ele>
        <time>2018-12-28T02:38:33Z</time>
      </trkpt>
      <trkpt lat="35.044630" lon="-114.376740">
        <ele>896.332</ele>
        <time>2018-12-28T02:38:53Z</time>
      </trkpt>
      <trkpt lat="35.044810" lon="-114.376660">
        <ele>894.875</ele>
        <time>2018-12-28T02:39:13Z</time>
      </trkpt>
      <trkpt lat="35.044860" lon="-114.376640">
        <ele>894.495</ele>
        <time>2018-12-28T02:39:33Z</time>
      </trkpt>
      <trkpt lat="35.044900" lon="-114.376640">
        <ele>894.581</ele>
        <time>2018-12-28T02:39:53Z</time>
      </trkpt>
      <trkpt lat="35.044930" lon="-114.376640">
        <ele>894.561</ele>
        <time>2018-12-28T02:40:13Z</time>
      </trkpt>
      <trkpt lat="35.044980" lon="-114.376650">
        <ele>894.517</ele>
        <time>2018-12-28T02:40:33Z</time>
      </trkpt>
      <trkpt lat="35.045040" lon="-114.376670">
        <ele>894.308</ele>
        <time>2018-12-28T02:40:53Z</time>
      </trkpt>
      <trkpt lat="35.045080" lon="-114.376690">
        <ele>893.971</ele>
        <time>2018-12-28T02:41:13Z</time>
      </trkpt>
      <trkpt lat="35.045130" lon="-114.376720">
        <ele>893.359</ele>
        <time>2018-12-28T02:41:33Z</time>
      </trkpt>
      <trkpt lat="35.045190" lon="-114.376770">
        <ele>892.734</ele>
        <time>2018-12-28T02:41:53Z</time>
      </trkpt>
      <trkpt lat="35.045290" lon="-114.376880">
        <ele>892.275</ele>
        <time>2018-12-28T02:42:13Z</time>
      </trkpt>
      <trkpt lat="35.045370" lon="-114.376980">
        <ele>891.960</ele>
        <time>2018-12-28T02:42:33Z</time>
      </trkpt>
      <trkpt lat="35.045400" lon="-114.377040">
        <ele>891.611</ele>
        <time>2018-12-28T02:42:53Z</time>
      </trkpt>
      <trkpt lat="35.045430" lon="-114.377120">
        <ele>891.434</ele>
        <time>2018-12-28T02:43:13Z</time>
      </trkpt>
      <trkpt lat="35.045450" lon="-114.377190">
        <ele>891.454</ele>
        <time>2018-12-28T02:43:33Z</time>
      </trkpt>
      <trkpt lat="35.045460" lon="-114.377220">
        <ele>891.552</ele>
        <time>2018-12-28T02:43:53Z</time>
      </trkpt>
      <trkpt lat="35.045460" lon="-114.377280">
        <ele>891.453</ele>
        <time>2018-12-28T02:44:13Z</time>
      </trkpt>
      <trkpt lat="35.045460" lon="-114.377330">
        <ele>891.308</ele>
        <time>2018-12-28T02:44:33Z</time>
      </trkpt>
      <trkpt lat="35.045460" lon="-114.377370">
        <ele>891.308</ele>
        <time>2018-12-28T02:44:53Z</time>
      </trkpt>
      <trkpt lat="35.045450" lon="-114.377410">
        <ele>891.298</ele>
        <time>2018-12-28T02:45:13Z</time>
      </trkpt>
      <trkpt lat="35.045430" lon="-114.377510">
        <ele>891.016</ele>
        <time>2018-12-28T02:45:33Z</time>
      </trkpt>
      <trkpt lat="35.045340" lon="-114.377690">
        <ele>889.251</ele>
        <time>2018-12-28T02:45:53Z</time>
      </trkpt>
      <trkpt lat="35.045280" lon="-114.377800">
        <ele>887.252</ele>
        <time>2018-12-28T02:46:13Z</time>
      </trkpt>
      <trkpt lat="35.045230" lon="-114.377930">
        <ele>885.847</ele>
        <time>2018-12-28T02:46:33Z</time>
      </trkpt>
      <trkpt lat="35.045210" lon="-114.377990">
        <ele>886.258</ele>
        <time>2018-12-28T02:46:53Z</time>
      </trkpt>
      <trkpt lat="35.045190" lon="-114.378070">
        <ele>887.091</ele>
        <time>2018-12-28T02:47:13Z</time>
      </trkpt>
      <trkpt lat="35.045190" lon="-114.378130">
        <ele>887.561</ele>
        <time>2018-12-28T02:47:33Z</time>
      </trkpt>
      <trkpt lat="35.045180" lon="-114.378190">
        <ele>888.256</ele>
        <time>2018-12-28T02:47:53Z</time>
      </trkpt>
      <trkpt lat="35.045180" lon="-114.378250">
        <ele>889.859</ele>
        <time>2018-12-28T02:48:13Z</time>
      </trkpt>
      <trkpt lat="35.045180" lon="-114.378300">
        <ele>891.214</ele>
        <time>2018-12-28T02:48:33Z</time>
      </trkpt>
      <trkpt lat="35.045190" lon="-114.378330">
        <ele>891.708</ele>
        <time>2018-12-28T02:48:53Z</time>
      </trkpt>
      <trkpt lat="35.045200" lon="-114.378370">
        <ele>892.588</ele>
        <time>2018-12-28T02:49:13Z</time>
      </trkpt>
      <trkpt lat="35.045210" lon="-114.378410">
        <ele>893.376</ele>
        <time>2018-12-28T02:49:33Z</time>
      </trkpt>
      <trkpt lat="35.045230" lon="-114.378440">
        <ele>893.521</ele>
        <time>2018-12-28T02:49:53Z</time>
      </trkpt>
      <trkpt lat="35.045250" lon="-114.378460">
        <ele>893.442</ele>
        <time>2018-12-28T02:50:13Z</time>
      </trkpt>
      <trkpt lat="35.045270" lon="-114.378490">
        <ele>893.947</ele>
        <time>2018-12-28T02:50:33Z</time>
      </trkpt>
      <trkpt lat="35.045320" lon="-114.378520">
        <ele>893.788</ele>
        <time>2018-12-28T02:50:53Z</time>
      </trkpt>
      <trkpt lat="35.045370" lon="-114.378550">
        <ele>893.751</ele>
        <time>2018-12-28T02:51:13Z</time>
      </trkpt>
      <trkpt lat="35.045470" lon="-114.378600">
        <ele>892.881</ele>
        <time>2018-12-28T02:51:33Z</time>
      </trkpt>
      <trkpt lat="35.045600" lon="-114.378670">
        <ele>890.163</ele>
        <time>2018-12-28T02:51:53Z</time>
      </trkpt>
      <trkpt lat="35.045640" lon="-114.378700">
        <ele>889.144</ele>
        <time>2018-12-28T02:52:13Z</time>
      </trkpt>
      <trkpt lat="35.045670" lon="-114.378730">
        <ele>888.518</ele>
        <time>2018-12-28T02:52:33Z</time>
      </trkpt>
      <trkpt lat="35.045710" lon="-114.378770">
        <ele>887.408</ele>
        <time>2018-12-28T02:52:53Z</time>
      </trkpt>
      <trkpt lat="35.045760" lon="-114.378840">
        <ele>886.439</ele>
        <time>2018-12-28T02:53:13Z</time>
      </trkpt>
      <trkpt lat="35.045820" lon="-114.378980">
        <ele>885.597</ele>
        <time>2018-12-28T02:53:33Z</time>
      </trkpt>
      <trkpt lat="35.045850" lon="-114.379070">
        <ele>884.512</ele>
        <time>2018-12-28T02:53:53Z</time>
      </trkpt>
      <trkpt lat="35.045860" lon="-114.379140">
        <ele>883.983</ele>
        <time>2018-12-28T02:54:13Z</time>
      </trkpt>
      <trkpt lat="35.045870" lon="-114.379220">
        <ele>883.458</ele>
        <time>2018-12-28T02:54:33Z</time>
      </trkpt>
      <trkpt lat="35.045860" lon="-114.379310">
        <ele>883.629</ele>
        <time>2018-12-28T02:54:53Z</time>
      </trkpt>
      <trkpt lat="35.045850" lon="-114.379390">
        <ele>882.692</ele>
        <time>2018-12-28T02:55:13Z</time>
      </trkpt>
      <trkpt lat="35.045830" lon="-114.379470">
        <ele>881.862</ele>
        <time>2018-12-28T02:55:33Z</time>
      </trkpt>
      <trkpt lat="35.045810" lon="-114.379530">
        <ele>881.233</ele>
        <time>2018-12-28T02:55:53Z</time>
      </trkpt>
      <trkpt lat="35.045780" lon="-114.379590">
        <ele>880.523</ele>
        <time>2018-12-28T02:56:13Z</time>
      </trkpt>
      <trkpt lat="35.045740" lon="-114.379630">
        <ele>880.615</ele>
        <time>2018-12-28T02:56:33Z</time>
      </trkpt>
      <trkpt lat="35.045710" lon="-114.379670">
        <ele>880.308</ele>
        <time>2018-12-28T02:56:53Z</time>
      </trkpt>
      <trkpt lat="35.045680" lon="-114.379680">
        <ele>880.536</ele>
        <time>2018-12-28T02:57:13Z</time>
      </trkpt>
      <trkpt lat="35.045650" lon="-114.379700">
        <ele>880.464</ele>
        <time>2018-12-28T02:57:33Z</time>
      </trkpt>
      <trkpt lat="35.045620" lon="-114.379700">
        <ele>880.659</ele>
        <time>2018-12-28T02:57:53Z</time>
      </trkpt>
      <trkpt lat="35.045580" lon="-114.379710">
        <ele>880.740</ele>
        <time>2018-12-28T02:58:13Z</time>
      </trkpt>
      <trkpt lat="35.045530" lon="-114.379720">
        <ele>880.985</ele>
        <time>2018-12-28T02:58:33Z</time>
      </trkpt>
      <trkpt lat="35.045480" lon="-114.379730">
        <ele>881.136</ele>
        <time>2018-12-28T02:58:53Z</time>
      </trkpt>
      <trkpt lat="35.045450" lon="-114.379740">
        <ele>881.169</ele>
        <time>2018-12-28T02:59:13Z</time>
      </trkpt>
      <trkpt lat="35.045410" lon="-114.379750">
        <ele>881.089</ele>
        <time>2018-12-28T02:59:33Z</time>
      </trkpt>
      <trkpt lat="35.045370" lon="-114.379780">
        <ele>880.231</ele>
        <time>2018-12-28T02:59:53Z</time>
      </trkpt>
      <trkpt lat="35.045320" lon="-114.379820">
        <ele>879.161</ele>
        <time>2018-12-28T03:00:13Z</time>
      </trkpt>
      <trkpt lat="35.045290" lon="-114.379870">
        <ele>878.007</ele>
        <time>2018-12-28T03:00:33Z</time>
      </trkpt>
      <trkpt lat="35.045280" lon="-114.379900">
        <ele>878.108</ele>
        <time>2018-12-28T03:00:53Z</time>
      </trkpt>
      <trkpt lat="35.045260" lon="-114.379940">
        <ele>878.466</ele>
        <time>2018-12-28T03:01:13Z</time>
      </trkpt>
      <trkpt lat="35.045250" lon="-114.379980">
        <ele>878.884</ele>
        <time>2018-12-28T03:01:33Z</time>
      </trkpt>
      <trkpt lat="35.045250" lon="-114.380010">
        <ele>879.049</ele>
        <time>2018-12-28T03:01:53Z</time>
      </trkpt>
      <trkpt lat="35.045250" lon="-114.380050">
        <ele>879.350</ele>
        <time>2018-12-28T03:02:13Z</time>
      </trkpt>
      <trkpt lat="35.045250" lon="-114.380100">
        <ele>879.785</ele>
        <time>2018-12-28T03:02:33Z</time>
      </trkpt>
      <trkpt lat="35.045270" lon="-114.380150">
        <ele>879.886</ele>
        <time>2018-12-28T03:02:53Z</time>
      </trkpt>
      <trkpt lat="35.045280" lon="-114.380180">
        <ele>880.319</ele>
        <time>2018-12-28T03:03:13Z</time>
      </trkpt>
      <trkpt lat="35.045330" lon="-114.380250">
        <ele>880.069</ele>
        <time>2018-12-28T03:03:33Z</time>
      </trkpt>
      <trkpt lat="35.045410" lon="-114.380340">
        <ele>877.395</ele>
        <time>2018-12-28T03:03:53Z</time>
      </trkpt>
      <trkpt lat="35.045570" lon="-114.380530">
        <ele>876.149</ele>
        <time>2018-12-28T03:04:13Z</time>
      </trkpt>
      <trkpt lat="35.045590" lon="-114.380560">
        <ele>875.923</ele>
        <time>2018-12-28T03:04:33Z</time>
      </trkpt>
      <trkpt lat="35.045610" lon="-114.380610">
        <ele>875.708</ele>
        <time>2018-12-28T03:04:53Z</time>
      </trkpt>
      <trkpt lat="35.045630" lon="-114.380670">
        <ele>875.422</ele>
        <time>2018-12-28T03:05:13Z</time>
      </trkpt>
      <trkpt lat="35.045630" lon="-114.380710">
        <ele>875.580</ele>
        <time>2018-12-28T03:05:33Z</time>
      </trkpt>
      <trkpt lat="35.045640" lon="-114.380780">
        <ele>875.145</ele>
        <time>2018-12-28T03:05:53Z</time>
      </trkpt>
      <trkpt lat="35.045640" lon="-114.380860">
        <ele>875.146</ele>
        <time>2018-12-28T03:06:13Z</time>
      </trkpt>
      <trkpt lat="35.045640" lon="-114.381020">
        <ele>875.291</ele>
        <time>2018-12-28T03:06:33Z</time>
      </trkpt>
      <trkpt lat="35.045640" lon="-114.381220">
        <ele>876.212</ele>
        <time>2018-12-28T03:06:53Z</time>
      </trkpt>
      <trkpt lat="35.045660" lon="-114.381380">
        <ele>875.215</ele>
        <time>2018-12-28T03:07:13Z</time>
      </trkpt>
      <trkpt lat="35.045670" lon="-114.381560">
        <ele>874.465</ele>
        <time>2018-12-28T03:07:33Z</time>
      </trkpt>
      <trkpt lat="35.045680" lon="-114.381700">
        <ele>874.031</ele>
        <time>2018-12-28T03:07:53Z</time>
      </trkpt>
      <trkpt lat="35.045680" lon="-114.381800">
        <ele>874.061</ele>
        <time>2018-12-28T03:08:13Z</time>
      </trkpt>
      <trkpt lat="35.045690" lon="-114.381850">
        <ele>874.407</ele>
        <time>2018-12-28T03:08:33Z</time>
      </trkpt>
      <trkpt lat="35.045700" lon="-114.381890">
        <ele>874.608</ele>
        <time>2018-12-28T03:08:53Z</time>
      </trkpt>
      <trkpt lat="35.045710" lon="-114.381940">
        <ele>875.196</ele>
        <time>2018-12-28T03:09:13Z</time>
      </trkpt>
      <trkpt lat="35.045720" lon="-114.381980">
        <ele>875.464</ele>
        <time>2018-12-28T03:09:33Z</time>
      </trkpt>
      <trkpt lat="35.045750" lon="-114.382030">
        <ele>875.619</ele>
        <time>2018-12-28T03:09:53Z</time>
      </trkpt>
      <trkpt lat="35.045780" lon="-114.382060">
        <ele>875.540</ele>
        <time>2018-12-28T03:10:13Z</time>
      </trkpt>
      <trkpt lat="35.045820" lon="-114.382100">
        <ele>875.585</ele>
        <time>2018-12-28T03:10:33Z</time>
      </trkpt>
      <trkpt lat="35.045960" lon="-114.382190">
        <ele>874.696</ele>
        <time>2018-12-28T03:10:53Z</time>
      </trkpt>
      <trkpt lat="35.046000" lon="-114.382220">
        <ele>874.369</ele>
        <time>2018-12-28T03:11:13Z</time>
      </trkpt>
      <trkpt lat="35.046060" lon="-114.382280">
        <ele>873.889</ele>
        <time>2018-12-28T03:11:33Z</time>
      </trkpt>
      <trkpt lat="35.046080" lon="-114.382310">
        <ele>873.613</ele>
        <time>2018-12-28T03:11:53Z</time>
      </trkpt>
      <trkpt lat="35.046110" lon="-114.382360">
        <ele>873.243</ele>
        <time>2018-12-28T03:12:13Z</time>
      </trkpt>
      <trkpt lat="35.046160" lon="-114.382440">
        <ele>871.807</ele>
        <time>2018-12-28T03:12:33Z</time>
      </trkpt>
      <trkpt lat="35.046200" lon="-114.382530">
        <ele>870.808</ele>
        <time>2018-12-28T03:12:53Z</time>
      </trkpt>
      <trkpt lat="35.046260" lon="-114.382700">
        <ele>868.754</ele>
        <time>2018-12-28T03:13:13Z</time>
      </trkpt>
      <trkpt lat="35.046290" lon="-114.382800">
        <ele>866.822</ele>
        <time>2018-12-28T03:13:33Z</time>
      </trkpt>
      <trkpt lat="35.046330" lon="-114.382930">
        <ele>864.887</ele>
        <time>2018-12-28T03:13:53Z</time>
      </trkpt>
      <trkpt lat="35.046350" lon="-114.383010">
        <ele>863.948</ele>
        <time>2018-12-28T03:14:13Z</time>
      </trkpt>
      <trkpt lat="35.046360" lon="-114.383070">
        <ele>863.313</ele>
        <time>2018-12-28T03:14:33Z</time>
      </trkpt>
      <trkpt lat="35.046360" lon="-114.383140">
        <ele>862.834</ele>
        <time>2018-12-28T03:14:53Z</time>
      </trkpt>
      <trkpt lat="35.046340" lon="-114.383210">
        <ele>862.767</ele>
        <time>2018-12-28T03:15:13Z</time>
      </trkpt>
      <trkpt lat="35.046310" lon="-114.383280">
        <ele>862.517</ele>
        <time>2018-12-28T03:15:33Z</time>
      </trkpt>
      <trkpt lat="35.046280" lon="-114.383340">
        <ele>862.418</ele>
        <time>2018-12-28T03:15:53Z</time>
      </trkpt>
      <trkpt lat="35.046150" lon="-114.383590">
        <ele>861.298</ele>
        <time>2018-12-28T03:16:13Z</time>
      </trkpt>
      <trkpt lat="35.046030" lon="-114.383810">
        <ele>859.717</ele>
        <time>2018-12-28T03:16:33Z</time>
      </trkpt>
      <trkpt lat="35.045970" lon="-114.383900">
        <ele>858.908</ele>
        <time>2018-12-28T03:16:53Z</time>
      </trkpt>
      <trkpt lat="35.045900" lon="-114.383990">
        <ele>857.964</ele>
        <time>2018-12-28T03:17:13Z</time>
      </trkpt>
      <trkpt lat="35.045850" lon="-114.384040">
        <ele>857.432</ele>
        <time>2018-12-28T03:17:33Z</time>
      </trkpt>
      <trkpt lat="35.045790" lon="-114.384080">
        <ele>857.127</ele>
        <time>2018-12-28T03:17:53Z</time>
      </trkpt>
      <trkpt lat="35.045720" lon="-114.384110">
        <ele>857.258</ele>
        <time>2018-12-28T03:18:13Z</time>
      </trkpt>
      <trkpt lat="35.045670" lon="-114.384120">
        <ele>857.363</ele>
        <time>2018-12-28T03:18:33Z</time>
      </trkpt>
      <trkpt lat="35.045430" lon="-114.384160">
        <ele>857.214</ele>
        <time>2018-12-28T03:18:53Z</time>
      </trkpt>
      <trkpt lat="35.045060" lon="-114.384190">
        <ele>853.837</ele>
        <time>2018-12-28T03:19:13Z</time>
      </trkpt>
      <trkpt lat="35.044910" lon="-114.384210">
        <ele>851.957</ele>
        <time>2018-12-28T03:19:33Z</time>
      </trkpt>
      <trkpt lat="35.044820" lon="-114.384220">
        <ele>851.228</ele>
        <time>2018-12-28T03:19:53Z</time>
      </trkpt>
      <trkpt lat="35.044750" lon="-114.384240">
        <ele>851.089</ele>
        <time>2018-12-28T03:20:13Z</time>
      </trkpt>
      <trkpt lat="35.044670" lon="-114.384280">
        <ele>850.717</ele>
        <time>2018-12-28T03:20:33Z</time>
      </trkpt>
      <trkpt lat="35.044620" lon="-114.384310">
        <ele>850.408</ele>
        <time>2018-12-28T03:20:53Z</time>
      </trkpt>
      <trkpt lat="35.044560" lon="-114.384350">
        <ele>850.065</ele>
        <time>2018-12-28T03:21:13Z</time>
      </trkpt>
      <trkpt lat="35.044480" lon="-114.384410">
        <ele>849.453</ele>
        <time>2018-12-28T03:21:33Z</time>
      </trkpt>
      <trkpt lat="35.044240" lon="-114.384600">
        <ele>845.628</ele>
        <time>2018-12-28T03:21:53Z</time>
      </trkpt>
      <trkpt lat="35.044090" lon="-114.384730">
        <ele>842.479</ele>
        <time>2018-12-28T03:22:13Z</time>
      </trkpt>
      <trkpt lat="35.044010" lon="-114.384830">
        <ele>840.634</ele>
        <time>2018-12-28T03:22:33Z</time>
      </trkpt>
      <trkpt lat="35.043980" lon="-114.384870">
        <ele>840.555</ele>
        <time>2018-12-28T03:22:53Z</time>
      </trkpt>
      <trkpt lat="35.043960" lon="-114.384910">
        <ele>840.848</ele>
        <time>2018-12-28T03:23:13Z</time>
      </trkpt>
      <trkpt lat="35.043950" lon="-114.384940">
        <ele>841.148</ele>
        <time>2018-12-28T03:23:33Z</time>
      </trkpt>
      <trkpt lat="35.043940" lon="-114.384980">
        <ele>841.465</ele>
        <time>2018-12-28T03:23:53Z</time>
      </trkpt>
      <trkpt lat="35.043940" lon="-114.385020">
        <ele>841.668</ele>
        <time>2018-12-28T03:24:13Z</time>
      </trkpt>
      <trkpt lat="35.043930" lon="-114.385060">
        <ele>841.914</ele>
        <time>2018-12-28T03:24:33Z</time>
      </trkpt>
      <trkpt lat="35.043940" lon="-114.385110">
        <ele>842.008</ele>
        <time>2018-12-28T03:24:53Z</time>
      </trkpt>
      <trkpt lat="35.043950" lon="-114.385160">
        <ele>842.229</ele>
        <time>2018-12-28T03:25:13Z</time>
      </trkpt>
      <trkpt lat="35.043960" lon="-114.385200">
        <ele>842.517</ele>
        <time>2018-12-28T03:25:33Z</time>
      </trkpt>
      <trkpt lat="35.043990" lon="-114.385260">
        <ele>842.182</ele>
        <time>2018-12-28T03:25:53Z</time>
      </trkpt>
      <trkpt lat="35.044220" lon="-114.385590">
        <ele>842.233</ele>
        <time>2018-12-28T03:26:13Z</time>
      </trkpt>
      <trkpt lat="35.044390" lon="-114.385830">
        <ele>840.388</ele>
        <time>2018-12-28T03:26:33Z</time>
      </trkpt>
      <trkpt lat="35.044600" lon="-114.386130">
        <ele>839.189</ele>
        <time>2018-12-28T03:26:53Z</time>
      </trkpt>
      <trkpt lat="35.044630" lon="-114.386200">
        <ele>838.812</ele>
        <time>2018-12-28T03:27:13Z</time>
      </trkpt>
      <trkpt lat="35.044640" lon="-114.386260">
        <ele>838.912</ele>
        <time>2018-12-28T03:27:33Z</time>
      </trkpt>
      <trkpt lat="35.044660" lon="-114.386320">
        <ele>838.053</ele>
        <time>2018-12-28T03:27:53Z</time>
      </trkpt>
      <trkpt lat="35.044660" lon="-114.386370">
        <ele>837.704</ele>
        <time>2018-12-28T03:28:13Z</time>
      </trkpt>
      <trkpt lat="35.044650" lon="-114.386460">
        <ele>837.514</ele>
        <time>2018-12-28T03:28:33Z</time>
      </trkpt>
      <trkpt lat="35.044650" lon="-114.386490">
        <ele>837.308</ele>
        <time>2018-12-28T03:28:53Z</time>
      </trkpt>
      <trkpt lat="35.044630" lon="-114.386540">
        <ele>837.478</ele>
        <time>2018-12-28T03:29:13Z</time>
      </trkpt>
      <trkpt lat="35.044610" lon="-114.386580">
        <ele>837.316</ele>
        <time>2018-12-28T03:29:33Z</time>
      </trkpt>
      <trkpt lat="35.044560" lon="-114.386630">
        <ele>837.281</ele>
        <time>2018-12-28T03:29:53Z</time>
      </trkpt>
      <trkpt lat="35.044480" lon="-114.386690">
        <ele>836.992</ele>
        <time>2018-12-28T03:30:13Z</time>
      </trkpt>
      <trkpt lat="35.044340" lon="-114.386750">
        <ele>837.027</ele>
        <time>2018-12-28T03:30:33Z</time>
      </trkpt>
      <trkpt lat="35.044260" lon="-114.386780">
        <ele>837.338</ele>
        <time>2018-12-28T03:30:53Z</time>
      </trkpt>
      <trkpt lat="35.044180" lon="-114.386820">
        <ele>837.471</ele>
        <time>2018-12-28T03:31:13Z</time>
      </trkpt>
      <trkpt lat="35.044110" lon="-114.386870">
        <ele>837.421</ele>
        <time>2018-12-28T03:31:33Z</time>
      </trkpt>
      <trkpt lat="35.044030" lon="-114.386950">
        <ele>837.376</ele>
        <time>2018-12-28T03:31:53Z</time>
      </trkpt>
      <trkpt lat="35.043920" lon="-114.387120">
        <ele>836.890</ele>
        <time>2018-12-28T03:32:13Z</time>
      </trkpt>
      <trkpt lat="35.043860" lon="-114.387210">
        <ele>836.819</ele>
        <time>2018-12-28T03:32:33Z</time>
      </trkpt>
      <trkpt lat="35.043800" lon="-114.387340">
        <ele>836.508</ele>
        <time>2018-12-28T03:32:53Z</time>
      </trkpt>
      <trkpt lat="35.043770" lon="-114.387470">
        <ele>835.650</ele>
        <time>2018-12-28T03:33:13Z</time>
      </trkpt>
      <trkpt lat="35.043740" lon="-114.387580">
        <ele>835.048</ele>
        <time>2018-12-28T03:33:33Z</time>
      </trkpt>
      <trkpt lat="35.043690" lon="-114.387760">
        <ele>833.933</ele>
        <time>2018-12-28T03:33:53Z</time>
      </trkpt>
      <trkpt lat="35.043650" lon="-114.387850">
        <ele>833.384</ele>
        <time>2018-12-28T03:34:13Z</time>
      </trkpt>
      <trkpt lat="35.043590" lon="-114.387960">
        <ele>832.239</ele>
        <time>2018-12-28T03:34:33Z</time>
      </trkpt>
      <trkpt lat="35.043550" lon="-114.388030">
        <ele>831.240</ele>
        <time>2018-12-28T03:34:53Z</time>
      </trkpt>
      <trkpt lat="35.043470" lon="-114.388110">
        <ele>830.363</ele>
        <time>2018-12-28T03:35:13Z</time>
      </trkpt>
      <trkpt lat="35.043280" lon="-114.388280">
        <ele>826.393</ele>
        <time>2018-12-28T03:35:33Z</time>
      </trkpt>
      <trkpt lat="35.043070" lon="-114.388430">
        <ele>824.851</ele>
        <time>2018-12-28T03:35:53Z</time>
      </trkpt>
      <trkpt lat="35.042780" lon="-114.388570">
        <ele>823.701</ele>
        <time>2018-12-28T03:36:13Z</time>
      </trkpt>
      <trkpt lat="35.042550" lon="-114.388670">
        <ele>822.011</ele>
        <time>2018-12-28T03:36:33Z</time>
      </trkpt>
      <trkpt lat="35.042410" lon="-114.388740">
        <ele>820.708</ele>
        <time>2018-12-28T03:36:53Z</time>
      </trkpt>
      <trkpt lat="35.042340" lon="-114.388790">
        <ele>820.388</ele>
        <time>2018-12-28T03:37:13Z</time>
      </trkpt>
      <trkpt lat="35.042300" lon="-114.388840">
        <ele>820.376</ele>
        <time>2018-12-28T03:37:33Z</time>
      </trkpt>
      <trkpt lat="35.042260" lon="-114.388890">
        <ele>820.481</ele>
        <time>2018-12-28T03:37:53Z</time>
      </trkpt>
      <trkpt lat="35.042240" lon="-114.388930">
        <ele>820.432</ele>
        <time>2018-12-28T03:38:13Z</time>
      </trkpt>
      <trkpt lat="35.042220" lon="-114.388970">
        <ele>820.417</ele>
        <time>2018-12-28T03:38:33Z</time>
      </trkpt>
      <trkpt lat="35.042210" lon="-114.389020">
        <ele>820.378</ele>
        <time>2018-12-28T03:38:53Z</time>
      </trkpt>
      <trkpt lat="35.042200" lon="-114.389070">
        <ele>820.881</ele>
        <time>2018-12-28T03:39:13Z</time>
      </trkpt>
      <trkpt lat="35.042200" lon="-114.389130">
        <ele>821.441</ele>
        <time>2018-12-28T03:39:33Z</time>
      </trkpt>
      <trkpt lat="35.042210" lon="-114.389180">
        <ele>821.874</ele>
        <time>2018-12-28T03:39:53Z</time>
      </trkpt>
      <trkpt lat="35.042220" lon="-114.389210">
        <ele>821.956</ele>
        <time>2018-12-28T03:40:13Z</time>
      </trkpt>
      <trkpt lat="35.042230" lon="-114.389230">
        <ele>822.021</ele>
        <time>2018-12-28T03:40:33Z</time>
      </trkpt>
      <trkpt lat="35.042260" lon="-114.389260">
        <ele>822.008</ele>
        <time>2018-12-28T03:40:53Z</time>
      </trkpt>
      <trkpt lat="35.042320" lon="-114.389330">
        <ele>822.360</ele>
        <time>2018-12-28T03:41:13Z</time>
      </trkpt>
      <trkpt lat="35.042510" lon="-114.389500">
        <ele>823.588</ele>
        <time>2018-12-28T03:41:33Z</time>
      </trkpt>
      <trkpt lat="35.042650" lon="-114.389610">
        <ele>823.823</ele>
        <time>2018-12-28T03:41:53Z</time>
      </trkpt>
      <trkpt lat="35.042770" lon="-114.389740">
        <ele>824.814</ele>
        <time>2018-12-28T03:42:13Z</time>
      </trkpt>
      <trkpt lat="35.042880" lon="-114.389870">
        <ele>825.519</ele>
        <time>2018-12-28T03:42:33Z</time>
      </trkpt>
      <trkpt lat="35.042990" lon="-114.390030">
        <ele>826.830</ele>
        <time>2018-12-28T03:42:53Z</time>
      </trkpt>
      <trkpt lat="35.043100" lon="-114.390190">
        <ele>827.673</ele>
        <time>2018-12-28T03:43:13Z</time>
      </trkpt>
      <trkpt lat="35.043160" lon="-114.390300">
        <ele>828.753</ele>
        <time>2018-12-28T03:43:33Z</time>
      </trkpt>
      <trkpt lat="35.043220" lon="-114.390390">
        <ele>829.774</ele>
        <time>2018-12-28T03:43:53Z</time>
      </trkpt>
      <trkpt lat="35.043290" lon="-114.390470">
        <ele>831.156</ele>
        <time>2018-12-28T03:44:13Z</time>
      </trkpt>
      <trkpt lat="35.043400" lon="-114.390550">
        <ele>832.521</ele>
        <time>2018-12-28T03:44:33Z</time>
      </trkpt>
      <trkpt lat="35.043530" lon="-114.390640">
        <ele>834.008</ele>
        <time>2018-12-28T03:44:53Z</time>
      </trkpt>
      <trkpt lat="35.043620" lon="-114.390700">
        <ele>834.810</ele>
        <time>2018-12-28T03:45:13Z</time>
      </trkpt>
      <trkpt lat="35.043700" lon="-114.390770">
        <ele>836.128</ele>
        <time>2018-12-28T03:45:33Z</time>
      </trkpt>
      <trkpt lat="35.043780" lon="-114.390880">
        <ele>837.083</ele>
        <time>2018-12-28T03:45:53Z</time>
      </trkpt>
      <trkpt lat="35.043850" lon="-114.391020">
        <ele>838.144</ele>
        <time>2018-12-28T03:46:13Z</time>
      </trkpt>
      <trkpt lat="35.043900" lon="-114.391170">
        <ele>839.579</ele>
        <time>2018-12-28T03:46:33Z</time>
      </trkpt>
      <trkpt lat="35.043960" lon="-114.391350">
        <ele>838.840</ele>
        <time>2018-12-28T03:46:53Z</time>
      </trkpt>
      <trkpt lat="35.043980" lon="-114.391490">
        <ele>839.283</ele>
        <time>2018-12-28T03:47:13Z</time>
      </trkpt>
      <trkpt lat="35.043990" lon="-114.391570">
        <ele>839.693</ele>
        <time>2018-12-28T03:47:33Z</time>
      </trkpt>
      <trkpt lat="35.043990" lon="-114.391650">
        <ele>840.368</ele>
        <time>2018-12-28T03:47:53Z</time>
      </trkpt>
      <trkpt lat="35.043980" lon="-114.391710">
        <ele>841.042</ele>
        <time>2018-12-28T03:48:13Z</time>
      </trkpt>
      <trkpt lat="35.043960" lon="-114.391770">
        <ele>841.726</ele>
        <time>2018-12-28T03:48:33Z</time>
      </trkpt>
      <trkpt lat="35.043940" lon="-114.391820">
        <ele>841.708</ele>
        <time>2018-12-28T03:48:53Z</time>
      </trkpt>
      <trkpt lat="35.043920" lon="-114.391860">
        <ele>841.129</ele>
        <time>2018-12-28T03:49:13Z</time>
      </trkpt>
      <trkpt lat="35.043890" lon="-114.391900">
        <ele>840.567</ele>
        <time>2018-12-28T03:49:33Z</time>
      </trkpt>
      <trkpt lat="35.043840" lon="-114.391950">
        <ele>839.752</ele>
        <time>2018-12-28T03:49:53Z</time>
      </trkpt>
      <trkpt lat="35.043790" lon="-114.391980">
        <ele>839.133</ele>
        <time>2018-12-28T03:50:13Z</time>
      </trkpt>
      <trkpt lat="35.043730" lon="-114.392000">
        <ele>838.858</ele>
        <time>2018-12-28T03:50:33Z</time>
      </trkpt>
      <trkpt lat="35.043650" lon="-114.392020">
        <ele>839.149</ele>
        <time>2018-12-28T03:50:53Z</time>
      </trkpt>
      <trkpt lat="35.043480" lon="-114.392040">
        <ele>840.292</ele>
        <time>2018-12-28T03:51:13Z</time>
      </trkpt>
      <trkpt lat="35.043300" lon="-114.392070">
        <ele>843.142</ele>
        <time>2018-12-28T03:51:33Z</time>
      </trkpt>
      <trkpt lat="35.043220" lon="-114.392080">
        <ele>844.536</ele>
        <time>2018-12-28T03:51:53Z</time>
      </trkpt>
      <trkpt lat="35.043160" lon="-114.392080">
        <ele>844.817</ele>
        <time>2018-12-28T03:52:13Z</time>
      </trkpt>
      <trkpt lat="35.043100" lon="-114.392070">
        <ele>844.618</ele>
        <time>2018-12-28T03:52:33Z</time>
      </trkpt>
      <trkpt lat="35.043040" lon="-114.392050">
        <ele>844.608</ele>
        <time>2018-12-28T03:52:53Z</time>
      </trkpt>
      <trkpt lat="35.042920" lon="-114.391990">
        <ele>845.776</ele>
        <time>2018-12-28T03:53:13Z</time>
      </trkpt>
      <trkpt lat="35.042840" lon="-114.391950">
        <ele>846.874</ele>
        <time>2018-12-28T03:53:33Z</time>
      </trkpt>
      <trkpt lat="35.042780" lon="-114.391920">
        <ele>847.649</ele>
        <time>2018-12-28T03:53:53Z</time>
      </trkpt>
      <trkpt lat="35.042730" lon="-114.391900">
        <ele>848.010</ele>
        <time>2018-12-28T03:54:13Z</time>
      </trkpt>
      <trkpt lat="35.042680" lon="-114.391890">
        <ele>848.225</ele>
        <time>2018-12-28T03:54:33Z</time>
      </trkpt>
      <trkpt lat="35.042610" lon="-114.391880">
        <ele>848.326</ele>
        <time>2018-12-28T03:54:53Z</time>
      </trkpt>
      <trkpt lat="35.042460" lon="-114.391880">
        <ele>848.069</ele>
        <time>2018-12-28T03:55:13Z</time>
      </trkpt>
      <trkpt lat="35.042350" lon="-114.391870">
        <ele>848.089</ele>
        <time>2018-12-28T03:55:33Z</time>
      </trkpt>
      <trkpt lat="35.042210" lon="-114.391840">
        <ele>848.588</ele>
        <time>2018-12-28T03:55:53Z</time>
      </trkpt>
      <trkpt lat="35.042010" lon="-114.391800">
        <ele>849.424</ele>
        <time>2018-12-28T03:56:13Z</time>
      </trkpt>
      <trkpt lat="35.041920" lon="-114.391780">
        <ele>850.126</ele>
        <time>2018-12-28T03:56:33Z</time>
      </trkpt>
      <trkpt lat="35.041820" lon="-114.391770">
        <ele>850.508</ele>
        <time>2018-12-28T03:56:53Z</time>
      </trkpt>
      <trkpt lat="35.041720" lon="-114.391790">
        <ele>851.361</ele>
        <time>2018-12-28T03:57:13Z</time>
      </trkpt>
      <trkpt lat="35.041680" lon="-114.391800">
        <ele>851.769</ele>
        <time>2018-12-28T03:57:33Z</time>
      </trkpt>
      <trkpt lat="35.041570" lon="-114.391870">
        <ele>852.934</ele>
        <time>2018-12-28T03:57:53Z</time>
      </trkpt>
      <trkpt lat="35.041420" lon="-114.391970">
        <ele>856.055</ele>
        <time>2018-12-28T03:58:13Z</time>
      </trkpt>
      <trkpt lat="35.041340" lon="-114.392030">
        <ele>856.930</ele>
        <time>2018-12-28T03:58:33Z</time>
      </trkpt>
      <trkpt lat="35.041280" lon="-114.392060">
        <ele>857.451</ele>
        <time>2018-12-28T03:58:53Z</time>
      </trkpt>
      <trkpt lat="35.041200" lon="-114.392090">
        <ele>857.394</ele>
        <time>2018-12-28T03:59:13Z</time>
      </trkpt>
      <trkpt lat="35.041130" lon="-114.392100">
        <ele>857.184</ele>
        <time>2018-12-28T03:59:33Z</time>
      </trkpt>
      <trkpt lat="35.041010" lon="-114.392120">
        <ele>856.624</ele>
        <time>2018-12-28T03:59:53Z</time>
      </trkpt>
      <trkpt lat="35.040960" lon="-114.392120">
        <ele>856.804</ele>
        <time>2018-12-28T04:00:13Z</time>
      </trkpt>
      <trkpt lat="35.040900" lon="-114.392130">
        <ele>857.414</ele>
        <time>2018-12-28T04:00:33Z</time>
      </trkpt>
      <trkpt lat="35.040850" lon="-114.392150">
        <ele>857.608</ele>
        <time>2018-12-28T04:00:53Z</time>
      </trkpt>
      <trkpt lat="35.040780" lon="-114.392180">
        <ele>857.985</ele>
        <time>2018-12-28T04:01:13Z</time>
      </trkpt>
      <trkpt lat="35.040690" lon="-114.392240">
        <ele>857.773</ele>
        <time>2018-12-28T04:01:33Z</time>
      </trkpt>
      <trkpt lat="35.040590" lon="-114.392320">
        <ele>857.678</ele>
        <time>2018-12-28T04:01:53Z</time>
      </trkpt>
      <trkpt lat="35.040440" lon="-114.392420">
        <ele>857.989</ele>
        <time>2018-12-28T04:02:13Z</time>
      </trkpt>
      <trkpt lat="35.040310" lon="-114.392510">
        <ele>857.934</ele>
        <time>2018-12-28T04:02:33Z</time>
      </trkpt>
      <trkpt lat="35.040120" lon="-114.392620">
        <ele>858.395</ele>
        <time>2018-12-28T04:02:53Z</time>
      </trkpt>
      <trkpt lat="35.040020" lon="-114.392690">
        <ele>858.188</ele>
        <time>2018-12-28T04:03:13Z</time>
      </trkpt>
      <trkpt lat="35.039930" lon="-114.392730">
        <ele>858.078</ele>
        <time>2018-12-28T04:03:33Z</time>
      </trkpt>
      <trkpt lat="35.039850" lon="-114.392760">
        <ele>857.887</ele>
        <time>2018-12-28T04:03:53Z</time>
      </trkpt>
      <trkpt lat="35.039780" lon="-114.392780">
        <ele>857.842</ele>
        <time>2018-12-28T04:04:13Z</time>
      </trkpt>
      <trkpt lat="35.039670" lon="-114.392810">
        <ele>857.726</ele>
        <time>2018-12-28T04:04:33Z</time>
      </trkpt>
      <trkpt lat="35.039560" lon="-114.392820">
        <ele>858.008</ele>
        <time>2018-12-28T04:04:53Z</time>
      </trkpt>
      <trkpt lat="35.039430" lon="-114.392840">
        <ele>857.781</ele>
        <time>2018-12-28T04:05:13Z</time>
      </trkpt>
      <trkpt lat="35.038710" lon="-114.392930">
        <ele>856.959</ele>
        <time>2018-12-28T04:05:33Z</time>
      </trkpt>
      <trkpt lat="35.038390" lon="-114.392980">
        <ele>854.484</ele>
        <time>2018-12-28T04:05:53Z</time>
      </trkpt>
      <trkpt lat="35.038230" lon="-114.393010">
        <ele>854.715</ele>
        <time>2018-12-28T04:06:13Z</time>
      </trkpt>
      <trkpt lat="35.038210" lon="-114.393010">
        <ele>854.740</ele>
        <time>2018-12-28T04:06:33Z</time>
      </trkpt>
      <trkpt lat="35.038180" lon="-114.393020">
        <ele>854.911</ele>
        <time>2018-12-28T04:06:53Z</time>
      </trkpt>
      <trkpt lat="35.038090" lon="-114.393060">
        <ele>855.544</ele>
        <time>2018-12-28T04:07:13Z</time>
      </trkpt>
      <trkpt lat="35.038020" lon="-114.393080">
        <ele>856.094</ele>
        <time>2018-12-28T04:07:33Z</time>
      </trkpt>
      <trkpt lat="35.037980" lon="-114.393110">
        <ele>856.071</ele>
        <time>2018-12-28T04:07:53Z</time>
      </trkpt>
      <trkpt lat="35.037910" lon="-114.393150">
        <ele>856.241</ele>
        <time>2018-12-28T04:08:13Z</time>
      </trkpt>
      <trkpt lat="35.037820" lon="-114.393200">
        <ele>856.615</ele>
        <time>2018-12-28T04:08:33Z</time>
      </trkpt>
      <trkpt lat="35.037750" lon="-114.393260">
        <ele>856.708</ele>
        <time>2018-12-28T04:08:53Z</time>
      </trkpt>
      <trkpt lat="35.037670" lon="-114.393340">
        <ele>856.780</ele>
        <time>2018-12-28T04:09:13Z</time>
      </trkpt>
      <trkpt lat="35.037580" lon="-114.393400">
        <ele>856.628</ele>
        <time>2018-12-28T04:09:33Z</time>
      </trkpt>
      <trkpt lat="35.037480" lon="-114.393450">
        <ele>856.533</ele>
        <time>2018-12-28T04:09:53Z</time>
      </trkpt>
      <trkpt lat="35.037380" lon="-114.393480">
        <ele>856.644</ele>
        <time>2018-12-28T04:10:13Z</time>
      </trkpt>
      <trkpt lat="35.037240" lon="-114.393510">
        <ele>857.619</ele>
        <time>2018-12-28T04:10:33Z</time>
      </trkpt>
      <trkpt lat="35.037080" lon="-114.393560">
        <ele>858.460</ele>
        <time>2018-12-28T04:10:53Z</time>
      </trkpt>
      <trkpt lat="35.036940" lon="-114.393590">
        <ele>859.453</ele>
        <time>2018-12-28T04:11:13Z</time>
      </trkpt>
      <trkpt lat="35.036830" lon="-114.393610">
        <ele>860.223</ele>
        <time>2018-12-28T04:11:33Z</time>
      </trkpt>
      <trkpt lat="35.036790" lon="-114.393610">
        <ele>860.674</ele>
        <time>2018-12-28T04:11:53Z</time>
      </trkpt>
      <trkpt lat="35.036730" lon="-114.393610">
        <ele>861.456</ele>
        <time>2018-12-28T04:12:13Z</time>
      </trkpt>
      <trkpt lat="35.036680" lon="-114.393610">
        <ele>862.121</ele>
        <time>2018-12-28T04:12:33Z</time>
      </trkpt>
      <trkpt lat="35.036610" lon="-114.393600">
        <ele>863.008</ele>
        <time>2018-12-28T04:12:53Z</time>
      </trkpt>
      <trkpt lat="35.036570" lon="-114.393580">
        <ele>863.570</ele>
        <time>2018-12-28T04:13:13Z</time>
      </trkpt>
      <trkpt lat="35.036510" lon="-114.393560">
        <ele>863.978</ele>
        <time>2018-12-28T04:13:33Z</time>
      </trkpt>
      <trkpt lat="35.036470" lon="-114.393540">
        <ele>863.683</ele>
        <time>2018-12-28T04:13:53Z</time>
      </trkpt>
      <trkpt lat="35.036430" lon="-114.393510">
        <ele>863.214</ele>
        <time>2018-12-28T04:14:13Z</time>
      </trkpt>
      <trkpt lat="35.036350" lon="-114.393450">
        <ele>862.559</ele>
        <time>2018-12-28T04:14:33Z</time>
      </trkpt>
      <trkpt lat="35.036270" lon="-114.393380">
        <ele>862.090</ele>
        <time>2018-12-28T04:14:53Z</time>
      </trkpt>
      <trkpt lat="35.036160" lon="-114.393290">
        <ele>860.013</ele>
        <time>2018-12-28T04:15:13Z</time>
      </trkpt>
      <trkpt lat="35.036050" lon="-114.393190">
        <ele>857.993</ele>
        <time>2018-12-28T04:15:33Z</time>
      </trkpt>
      <trkpt lat="35.035960" lon="-114.393120">
        <ele>857.292</ele>
        <time>2018-12-28T04:15:53Z</time>
      </trkpt>
      <trkpt lat="35.035850" lon="-114.393050">
        <ele>857.273</ele>
        <time>2018-12-28T04:16:13Z</time>
      </trkpt>
      <trkpt lat="35.035740" lon="-114.392980">
        <ele>857.020</ele>
        <time>2018-12-28T04:16:33Z</time>
      </trkpt>
      <trkpt lat="35.035630" lon="-114.392920">
        <ele>856.408</ele>
        <time>2018-12-28T04:16:53Z</time>
      </trkpt>
      <trkpt lat="35.034800" lon="-114.392500">
        <ele>850.572</ele>
        <time>2018-12-28T04:17:13Z</time>
      </trkpt>
      <trkpt lat="35.034090" lon="-114.392150">
        <ele>846.860</ele>
        <time>2018-12-28T04:17:33Z</time>
      </trkpt>
      <trkpt lat="35.033860" lon="-114.392030">
        <ele>846.165</ele>
        <time>2018-12-28T04:17:53Z</time>
      </trkpt>
      <trkpt lat="35.033820" lon="-114.392000">
        <ele>846.056</ele>
        <time>2018-12-28T04:18:13Z</time>
      </trkpt>
      <trkpt lat="35.033750" lon="-114.391940">
        <ele>845.731</ele>
        <time>2018-12-28T04:18:33Z</time>
      </trkpt>
      <trkpt lat="35.033670" lon="-114.391870">
        <ele>845.152</ele>
        <time>2018-12-28T04:18:53Z</time>
      </trkpt>
      <trkpt lat="35.033580" lon="-114.391760">
        <ele>844.555</ele>
        <time>2018-12-28T04:19:13Z</time>
      </trkpt>
      <trkpt lat="35.033490" lon="-114.391620">
        <ele>844.315</ele>
        <time>2018-12-28T04:19:33Z</time>
      </trkpt>
      <trkpt lat="35.033400" lon="-114.391480">
        <ele>844.527</ele>
        <time>2018-12-28T04:19:53Z</time>
      </trkpt>
      <trkpt lat="35.033290" lon="-114.391340">
        <ele>844.768</ele>
        <time>2018-12-28T04:20:13Z</time>
      </trkpt>
      <trkpt lat="35.033090" lon="-114.391130">
        <ele>844.514</ele>
        <time>2018-12-28T04:20:33Z</time>
      </trkpt>
      <trkpt lat="35.032850" lon="-114.390890">
        <ele>843.408</ele>
        <time>2018-12-28T04:20:53Z</time>
      </trkpt>
      <trkpt lat="35.032680" lon="-114.390730">
        <ele>841.735</ele>
        <time>2018-12-28T04:21:13Z</time>
      </trkpt>
      <trkpt lat="35.032530" lon="-114.390580">
        <ele>839.813</ele>
        <time>2018-12-28T04:21:33Z</time>
      </trkpt>
      <trkpt lat="35.032500" lon="-114.390540">
        <ele>839.498</ele>
        <time>2018-12-28T04:21:53Z</time>
      </trkpt>
      <trkpt lat="35.032460" lon="-114.390490">
        <ele>838.939</ele>
        <time>2018-12-28T04:22:13Z</time>
      </trkpt>
      <trkpt lat="35.032440" lon="-114.390440">
        <ele>838.614</ele>
        <time>2018-12-28T04:22:33Z</time>
      </trkpt>
      <trkpt lat="35.032410" lon="-114.390380">
        <ele>838.295</ele>
        <time>2018-12-28T04:22:53Z</time>
      </trkpt>
      <trkpt lat="35.032370" lon="-114.390250">
        <ele>837.878</ele>
        <time>2018-12-28T04:23:13Z</time>
      </trkpt>
      <trkpt lat="35.032320" lon="-114.390120">
        <ele>836.818</ele>
        <time>2018-12-28T04:23:33Z</time>
      </trkpt>
      <trkpt lat="35.032270" lon="-114.389980">
        <ele>836.658</ele>
        <time>2018-12-28T04:23:53Z</time>
      </trkpt>
      <trkpt lat="35.032180" lon="-114.389820">
        <ele>836.452</ele>
        <time>2018-12-28T04:24:13Z</time>
      </trkpt>
      <trkpt lat="35.032090" lon="-114.389660">
        <ele>836.717</ele>
        <time>2018-12-28T04:24:33Z</time>
      </trkpt>
      <trkpt lat="35.031820" lon="-114.389260">
        <ele>837.308</ele>
        <time>2018-12-28T04:24:53Z</time>
      </trkpt>
      <trkpt lat="35.031650" lon="-114.388970">
        <ele>839.738</ele>
        <time>2018-12-28T04:25:13Z</time>
      </trkpt>
      <trkpt lat="35.031570" lon="-114.388860">
        <ele>840.276</ele>
        <time>2018-12-28T04:25:33Z</time>
      </trkpt>
      <trkpt lat="35.031480" lon="-114.388760">
        <ele>840.981</ele>
        <time>2018-12-28T04:25:53Z</time>
      </trkpt>
      <trkpt lat="35.031330" lon="-114.388590">
        <ele>841.282</ele>
        <time>2018-12-28T04:26:13Z</time>
      </trkpt>
      <trkpt lat="35.031160" lon="-114.388440">
        <ele>839.917</ele>
        <time>2018-12-28T04:26:33Z</time>
      </trkpt>
      <trkpt lat="35.031040" lon="-114.388340">
        <ele>838.718</ele>
        <time>2018-12-28T04:26:53Z</time>
      </trkpt>
      <trkpt lat="35.030870" lon="-114.388220">
        <ele>836.251</ele>
        <time>2018-12-28T04:27:13Z</time>
      </trkpt>
      <trkpt lat="35.030730" lon="-114.388140">
        <ele>834.181</ele>
        <time>2018-12-28T04:27:33Z</time>
      </trkpt>
      <trkpt lat="35.030580" lon="-114.388080">
        <ele>832.043</ele>
        <time>2018-12-28T04:27:53Z</time>
      </trkpt>
      <trkpt lat="35.030420" lon="-114.388020">
        <ele>829.964</ele>
        <time>2018-12-28T04:28:13Z</time>
      </trkpt>
      <trkpt lat="35.030310" lon="-114.387980">
        <ele>829.710</ele>
        <time>2018-12-28T04:28:33Z</time>
      </trkpt>
      <trkpt lat="35.030180" lon="-114.387920">
        <ele>829.308</ele>
        <time>2018-12-28T04:28:53Z</time>
      </trkpt>
      <trkpt lat="35.030040" lon="-114.387840">
        <ele>829.067</ele>
        <time>2018-12-28T04:29:13Z</time>
      </trkpt>
      <trkpt lat="35.029950" lon="-114.387770">
        <ele>828.995</ele>
        <time>2018-12-28T04:29:33Z</time>
      </trkpt>
      <trkpt lat="35.029850" lon="-114.387670">
        <ele>828.830</ele>
        <time>2018-12-28T04:29:53Z</time>
      </trkpt>
      <trkpt lat="35.029760" lon="-114.387530">
        <ele>829.821</ele>
        <time>2018-12-28T04:30:13Z</time>
      </trkpt>
      <trkpt lat="35.029660" lon="-114.387360">
        <ele>830.796</ele>
        <time>2018-12-28T04:30:33Z</time>
      </trkpt>
      <trkpt lat="35.029540" lon="-114.387150">
        <ele>833.497</ele>
        <time>2018-12-28T04:30:53Z</time>
      </trkpt>
      <trkpt lat="35.029350" lon="-114.386840">
        <ele>838.480</ele>
        <time>2018-12-28T04:31:13Z</time>
      </trkpt>
      <trkpt lat="35.029230" lon="-114.386660">
        <ele>840.220</ele>
        <time>2018-12-28T04:31:33Z</time>
      </trkpt>
      <trkpt lat="35.029110" lon="-114.386450">
        <ele>841.111</ele>
        <time>2018-12-28T04:31:53Z</time>
      </trkpt>
      <trkpt lat="35.028990" lon="-114.386260">
        <ele>841.321</ele>
        <time>2018-12-28T04:32:13Z</time>
      </trkpt>
      <trkpt lat="35.028910" lon="-114.386140">
        <ele>841.103</ele>
        <time>2018-12-28T04:32:33Z</time>
      </trkpt>
      <trkpt lat="35.028840" lon="-114.386030">
        <ele>840.908</ele>
        <time>2018-12-28T04:32:53Z</time>
      </trkpt>
      <trkpt lat="35.028770" lon="-114.385930">
        <ele>840.734</ele>
        <time>2018-12-28T04:33:13Z</time>
      </trkpt>
      <trkpt lat="35.028690" lon="-114.385850">
        <ele>840.732</ele>
        <time>2018-12-28T04:33:33Z</time>
      </trkpt>
      <trkpt lat="35.028590" lon="-114.385760">
        <ele>840.697</ele>
        <time>2018-12-28T04:33:53Z</time>
      </trkpt>
      <trkpt lat="35.028520" lon="-114.385700">
        <ele>840.458</ele>
        <time>2018-12-28T04:34:13Z</time>
      </trkpt>
      <trkpt lat="35.028460" lon="-114.385670">
        <ele>840.423</ele>
        <time>2018-12-28T04:34:33Z</time>
      </trkpt>
      <trkpt lat="35.028420" lon="-114.385640">
        <ele>840.314</ele>
        <time>2018-12-28T04:34:53Z</time>
      </trkpt>
      <trkpt lat="35.028350" lon="-114.385610">
        <ele>840.257</ele>
        <time>2018-12-28T04:35:13Z</time>
      </trkpt>
      <trkpt lat="35.028260" lon="-114.385570">
        <ele>839.977</ele>
        <time>2018-12-28T04:35:33Z</time>
      </trkpt>
      <trkpt lat="35.028030" lon="-114.385490">
        <ele>838.778</ele>
        <time>2018-12-28T04:35:53Z</time>
      </trkpt>
      <trkpt lat="35.027950" lon="-114.385460">
        <ele>838.233</ele>
        <time>2018-12-28T04:36:13Z</time>
      </trkpt>
      <trkpt lat="35.027820" lon="-114.385420">
        <ele>837.126</ele>
        <time>2018-12-28T04:36:33Z</time>
      </trkpt>
      <trkpt lat="35.027670" lon="-114.385370">
        <ele>835.608</ele>
        <time>2018-12-28T04:36:53Z</time>
      </trkpt>
      <trkpt lat="35.027500" lon="-114.385300">
        <ele>833.160</ele>
        <time>2018-12-28T04:37:13Z</time>
      </trkpt>
      <trkpt lat="35.027410" lon="-114.385240">
        <ele>831.858</ele>
        <time>2018-12-28T04:37:33Z</time>
      </trkpt>
      <trkpt lat="35.027320" lon="-114.385190">
        <ele>830.973</ele>
        <time>2018-12-28T04:37:53Z</time>
      </trkpt>
      <trkpt lat="35.027250" lon="-114.385120">
        <ele>830.264</ele>
        <time>2018-12-28T04:38:13Z</time>
      </trkpt>
      <trkpt lat="35.027180" lon="-114.385030">
        <ele>829.349</ele>
        <time>2018-12-28T04:38:33Z</time>
      </trkpt>
      <trkpt lat="35.027120" lon="-114.384930">
        <ele>828.710</ele>
        <time>2018-12-28T04:38:53Z</time>
      </trkpt>
      <trkpt lat="35.027060" lon="-114.384800">
        <ele>828.313</ele>
        <time>2018-12-28T04:39:13Z</time>
      </trkpt>
      <trkpt lat="35.027000" lon="-114.384650">
        <ele>827.913</ele>
        <time>2018-12-28T04:39:33Z</time>
      </trkpt>
      <trkpt lat="35.026930" lon="-114.384480">
        <ele>827.587</ele>
        <time>2018-12-28T04:39:53Z</time>
      </trkpt>
      <trkpt lat="35.026900" lon="-114.384390">
        <ele>827.342</ele>
        <time>2018-12-28T04:40:13Z</time>
      </trkpt>
      <trkpt lat="35.026870" lon="-114.384270">
        <ele>827.026</ele>
        <time>2018-12-28T04:40:33Z</time>
      </trkpt>
      <trkpt lat="35.026800" lon="-114.384150">
        <ele>826.708</ele>
        <time>2018-12-28T04:40:53Z</time>
      </trkpt>
      <trkpt lat="35.026740" lon="-114.384070">
        <ele>826.411</ele>
        <time>2018-12-28T04:41:13Z</time>
      </trkpt>
      <trkpt lat="35.026700" lon="-114.384010">
        <ele>826.389</ele>
        <time>2018-12-28T04:41:33Z</time>
      </trkpt>
      <trkpt lat="35.026650" lon="-114.383940">
        <ele>826.154</ele>
        <time>2018-12-28T04:41:53Z</time>
      </trkpt>
      <trkpt lat="35.026160" lon="-114.383430">
        <ele>824.365</ele>
        <time>2018-12-28T04:42:13Z</time>
      </trkpt>
      <trkpt lat="35.025840" lon="-114.383060">
        <ele>821.420</ele>
        <time>2018-12-28T04:42:33Z</time>
      </trkpt>
      <trkpt lat="35.025770" lon="-114.382970">
        <ele>820.261</ele>
        <time>2018-12-28T04:42:53Z</time>
      </trkpt>
      <trkpt lat="35.025700" lon="-114.382870">
        <ele>819.064</ele>
        <time>2018-12-28T04:43:13Z</time>
      </trkpt>
      <trkpt lat="35.025650" lon="-114.382800">
        <ele>818.794</ele>
        <time>2018-12-28T04:43:33Z</time>
      </trkpt>
      <trkpt lat="35.025590" lon="-114.382740">
        <ele>818.484</ele>
        <time>2018-12-28T04:43:53Z</time>
      </trkpt>
      <trkpt lat="35.025520" lon="-114.382700">
        <ele>818.107</ele>
        <time>2018-12-28T04:44:13Z</time>
      </trkpt>
      <trkpt lat="35.025440" lon="-114.382680">
        <ele>817.617</ele>
        <time>2018-12-28T04:44:33Z</time>
      </trkpt>
      <trkpt lat="35.025320" lon="-114.382660">
        <ele>817.008</ele>
        <time>2018-12-28T04:44:53Z</time>
      </trkpt>
      <trkpt lat="35.025000" lon="-114.382600">
        <ele>815.821</ele>
        <time>2018-12-28T04:45:13Z</time>
      </trkpt>
      <trkpt lat="35.024850" lon="-114.382560">
        <ele>814.999</ele>
        <time>2018-12-28T04:45:33Z</time>
      </trkpt>
      <trkpt lat="35.024570" lon="-114.382490">
        <ele>812.964</ele>
        <time>2018-12-28T04:45:53Z</time>
      </trkpt>
      <trkpt lat="35.024460" lon="-114.382470">
        <ele>811.975</ele>
        <time>2018-12-28T04:46:13Z</time>
      </trkpt>
      <trkpt lat="35.024380" lon="-114.382470">
        <ele>811.460</ele>
        <time>2018-12-28T04:46:33Z</time>
      </trkpt>
      <trkpt lat="35.024280" lon="-114.382470">
        <ele>810.771</ele>
        <time>2018-12-28T04:46:53Z</time>
      </trkpt>
      <trkpt lat="35.024120" lon="-114.382480">
        <ele>809.874</ele>
        <time>2018-12-28T04:47:13Z</time>
      </trkpt>
      <trkpt lat="35.024020" lon="-114.382500">
        <ele>809.584</ele>
        <time>2018-12-28T04:47:33Z</time>
      </trkpt>
      <trkpt lat="35.023900" lon="-114.382520">
        <ele>809.483</ele>
        <time>2018-12-28T04:47:53Z</time>
      </trkpt>
      <trkpt lat="35.023640" lon="-114.382590">
        <ele>809.825</ele>
        <time>2018-12-28T04:48:13Z</time>
      </trkpt>
      <trkpt lat="35.023530" lon="-114.382600">
        <ele>809.817</ele>
        <time>2018-12-28T04:48:33Z</time>
      </trkpt>
      <trkpt lat="35.023440" lon="-114.382620">
        <ele>809.808</ele>
        <time>2018-12-28T04:48:53Z</time>
      </trkpt>
      <trkpt lat="35.023350" lon="-114.382630">
        <ele>809.761</ele>
        <time>2018-12-28T04:49:13Z</time>
      </trkpt>
      <trkpt lat="35.023160" lon="-114.382650">
        <ele>809.229</ele>
        <time>2018-12-28T04:49:33Z</time>
      </trkpt>
      <trkpt lat="35.022990" lon="-114.382660">
        <ele>808.294</ele>
        <time>2018-12-28T04:49:53Z</time>
      </trkpt>
      <trkpt lat="35.022730" lon="-114.382660">
        <ele>806.635</ele>
        <time>2018-12-28T04:50:13Z</time>
      </trkpt>
      <trkpt lat="35.022490" lon="-114.382650">
        <ele>805.770</ele>
        <time>2018-12-28T04:50:33Z</time>
      </trkpt>
      <trkpt lat="35.022330" lon="-114.382670">
        <ele>805.421</ele>
        <time>2018-12-28T04:50:53Z</time>
      </trkpt>
      <trkpt lat="35.022150" lon="-114.382700">
        <ele>804.724</ele>
        <time>2018-12-28T04:51:13Z</time>
      </trkpt>
      <trkpt lat="35.021980" lon="-114.382750">
        <ele>803.324</ele>
        <time>2018-12-28T04:51:33Z</time>
      </trkpt>
      <trkpt lat="35.021800" lon="-114.382820">
        <ele>800.633</ele>
        <time>2018-12-28T04:51:53Z</time>
      </trkpt>
      <trkpt lat="35.021640" lon="-114.382900">
        <ele>800.023</ele>
        <time>2018-12-28T04:52:13Z</time>
      </trkpt>
      <trkpt lat="35.021500" lon="-114.382970">
        <ele>799.115</ele>
        <time>2018-12-28T04:52:33Z</time>
      </trkpt>
      <trkpt lat="35.021360" lon="-114.383040">
        <ele>797.808</ele>
        <time>2018-12-28T04:52:53Z</time>
      </trkpt>
      <trkpt lat="35.021130" lon="-114.383140">
        <ele>795.196</ele>
        <time>2018-12-28T04:53:13Z</time>
      </trkpt>
      <trkpt lat="35.020880" lon="-114.383240">
        <ele>792.644</ele>
        <time>2018-12-28T04:53:33Z</time>
      </trkpt>
      <trkpt lat="35.020630" lon="-114.383360">
        <ele>790.479</ele>
        <time>2018-12-28T04:53:53Z</time>
      </trkpt>
      <trkpt lat="35.020460" lon="-114.383460">
        <ele>788.110</ele>
        <time>2018-12-28T04:54:13Z</time>
      </trkpt>
      <trkpt lat="35.020380" lon="-114.383520">
        <ele>787.295</ele>
        <time>2018-12-28T04:54:33Z</time>
      </trkpt>
      <trkpt lat="35.020270" lon="-114.383600">
        <ele>786.136</ele>
        <time>2018-12-28T04:54:53Z</time>
      </trkpt>
      <trkpt lat="35.020140" lon="-114.383700">
        <ele>785.099</ele>
        <time>2018-12-28T04:55:13Z</time>
      </trkpt>
      <trkpt lat="35.020020" lon="-114.383800">
        <ele>783.929</ele>
        <time>2018-12-28T04:55:33Z</time>
      </trkpt>
      <trkpt lat="35.019630" lon="-114.384100">
        <ele>780.875</ele>
        <time>2018-12-28T04:55:53Z</time>
      </trkpt>
      <trkpt lat="35.019550" lon="-114.384160">
        <ele>780.528</ele>
        <time>2018-12-28T04:56:13Z</time>
      </trkpt>
      <trkpt lat="35.019440" lon="-114.384230">
        <ele>780.120</ele>
        <time>2018-12-28T04:56:33Z</time>
      </trkpt>
      <trkpt lat="35.019330" lon="-114.384300">
        <ele>779.808</ele>
        <time>2018-12-28T04:56:53Z</time>
      </trkpt>
      <trkpt lat="35.019120" lon="-114.384410">
        <ele>779.790</ele>
        <time>2018-12-28T04:57:13Z</time>
      </trkpt>
      <trkpt lat="35.018830" lon="-114.384560">
        <ele>778.598</ele>
        <time>2018-12-28T04:57:33Z</time>
      </trkpt>
      <trkpt lat="35.018560" lon="-114.384700">
        <ele>777.153</ele>
        <time>2018-12-28T04:57:53Z</time>
      </trkpt>
      <trkpt lat="35.017940" lon="-114.385020">
        <ele>774.634</ele>
        <time>2018-12-28T04:58:13Z</time>
      </trkpt>
      <trkpt lat="35.017820" lon="-114.385080">
        <ele>773.739</ele>
        <time>2018-12-28T04:58:33Z</time>
      </trkpt>
      <trkpt lat="35.017660" lon="-114.385180">
        <ele>771.860</ele>
        <time>2018-12-28T04:58:53Z</time>
      </trkpt>
      <trkpt lat="35.017500" lon="-114.385280">
        <ele>770.663</ele>
        <time>2018-12-28T04:59:13Z</time>
      </trkpt>
      <trkpt lat="35.017330" lon="-114.385400">
        <ele>769.833</ele>
        <time>2018-12-28T04:59:33Z</time>
      </trkpt>
      <trkpt lat="35.017170" lon="-114.385530">
        <ele>769.638</ele>
        <time>2018-12-28T04:59:53Z</time>
      </trkpt>
      <trkpt lat="35.017030" lon="-114.385670">
        <ele>769.770</ele>
        <time>2018-12-28T05:00:13Z</time>
      </trkpt>
      <trkpt lat="35.016720" lon="-114.385950">
        <ele>769.017</ele>
        <time>2018-12-28T05:00:33Z</time>
      </trkpt>
      <trkpt lat="35.016550" lon="-114.386100">
        <ele>768.208</ele>
        <time>2018-12-28T05:00:53Z</time>
      </trkpt>
      <trkpt lat="35.016320" lon="-114.386290">
        <ele>764.826</ele>
        <time>2018-12-28T05:01:13Z</time>
      </trkpt>
      <trkpt lat="35.016000" lon="-114.386540">
        <ele>762.434</ele>
        <time>2018-12-28T05:01:33Z</time>
      </trkpt>
      <trkpt lat="35.015460" lon="-114.386890">
        <ele>759.769</ele>
        <time>2018-12-28T05:01:53Z</time>
      </trkpt>
      <trkpt lat="35.015320" lon="-114.386970">
        <ele>759.250</ele>
        <time>2018-12-28T05:02:13Z</time>
      </trkpt>
      <trkpt lat="35.015160" lon="-114.387050">
        <ele>758.525</ele>
        <time>2018-12-28T05:02:33Z</time>
      </trkpt>
      <trkpt lat="35.014880" lon="-114.387180">
        <ele>756.996</ele>
        <time>2018-12-28T05:02:53Z</time>
      </trkpt>
      <trkpt lat="35.013930" lon="-114.387600">
        <ele>754.859</ele>
        <time>2018-12-28T05:03:13Z</time>
      </trkpt>
      <trkpt lat="35.013790" lon="-114.387680">
        <ele>754.649</ele>
        <time>2018-12-28T05:03:33Z</time>
      </trkpt>
      <trkpt lat="35.013640" lon="-114.387770">
        <ele>754.145</ele>
        <time>2018-12-28T05:03:53Z</time>
      </trkpt>
      <trkpt lat="35.013520" lon="-114.387860">
        <ele>753.447</ele>
        <time>2018-12-28T05:04:13Z</time>
      </trkpt>
      <trkpt lat="35.013220" lon="-114.388120">
        <ele>752.011</ele>
        <time>2018-12-28T05:04:33Z</time>
      </trkpt>
      <trkpt lat="35.012510" lon="-114.388740">
        <ele>747.708</ele>
        <time>2018-12-28T05:04:53Z</time>
      </trkpt>
      <trkpt lat="35.012370" lon="-114.388870">
        <ele>745.947</ele>
        <time>2018-12-28T05:05:13Z</time>
      </trkpt>
      <trkpt lat="35.012240" lon="-114.388990">
        <ele>744.895</ele>
        <time>2018-12-28T05:05:33Z</time>
      </trkpt>
      <trkpt lat="35.012150" lon="-114.389090">
        <ele>744.240</ele>
        <time>2018-12-28T05:05:53Z</time>
      </trkpt>
      <trkpt lat="35.012060" lon="-114.389190">
        <ele>743.841</ele>
        <time>2018-12-28T05:06:13Z</time>
      </trkpt>
      <trkpt lat="35.011940" lon="-114.389350">
        <ele>743.376</ele>
        <time>2018-12-28T05:06:33Z</time>
      </trkpt>
      <trkpt lat="35.011820" lon="-114.389520">
        <ele>742.997</ele>
        <time>2018-12-28T05:06:53Z</time>
      </trkpt>
      <trkpt lat="35.011690" lon="-114.389680">
        <ele>742.270</ele>
        <time>2018-12-28T05:07:13Z</time>
      </trkpt>
      <trkpt lat="35.011590" lon="-114.389780">
        <ele>741.550</ele>
        <time>2018-12-28T05:07:33Z</time>
      </trkpt>
      <trkpt lat="35.011450" lon="-114.389910">
        <ele>740.885</ele>
        <time>2018-12-28T05:07:53Z</time>
      </trkpt>
      <trkpt lat="35.011270" lon="-114.390060">
        <ele>740.289</ele>
        <time>2018-12-28T05:08:13Z</time>
      </trkpt>
      <trkpt lat="35.011120" lon="-114.390190">
        <ele>739.717</ele>
        <time>2018-12-28T05:08:33Z</time>
      </trkpt>
      <trkpt lat="35.010800" lon="-114.390410">
        <ele>738.208</ele>
        <time>2018-12-28T05:08:53Z</time>
      </trkpt>
      <trkpt lat="35.010320" lon="-114.390700">
        <ele>735.451</ele>
        <time>2018-12-28T05:09:13Z</time>
      </trkpt>
      <trkpt lat="35.009550" lon="-114.391170">
        <ele>730.779</ele>
        <time>2018-12-28T05:09:33Z</time>
      </trkpt>
      <trkpt lat="35.009290" lon="-114.391320">
        <ele>729.964</ele>
        <time>2018-12-28T05:09:53Z</time>
      </trkpt>
      <trkpt lat="35.008770" lon="-114.391600">
        <ele>729.545</ele>
        <time>2018-12-28T05:10:13Z</time>
      </trkpt>
      <trkpt lat="35.008630" lon="-114.391680">
        <ele>729.140</ele>
        <time>2018-12-28T05:10:33Z</time>
      </trkpt>
      <trkpt lat="35.008500" lon="-114.391770">
        <ele>728.651</ele>
        <time>2018-12-28T05:10:53Z</time>
      </trkpt>
      <trkpt lat="35.008400" lon="-114.391860">
        <ele>727.984</ele>
        <time>2018-12-28T05:11:13Z</time>
      </trkpt>
      <trkpt lat="35.008310" lon="-114.391950">
        <ele>727.034</ele>
        <time>2018-12-28T05:11:33Z</time>
      </trkpt>
      <trkpt lat="35.008240" lon="-114.392040">
        <ele>726.232</ele>
        <time>2018-12-28T05:11:53Z</time>
      </trkpt>
      <trkpt lat="35.008190" lon="-114.392120">
        <ele>725.692</ele>
        <time>2018-12-28T05:12:13Z</time>
      </trkpt>
      <trkpt lat="35.008150" lon="-114.392210">
        <ele>725.211</ele>
        <time>2018-12-28T05:12:33Z</time>
      </trkpt>
      <trkpt lat="35.008090" lon="-114.392370">
        <ele>724.708</ele>
        <time>2018-12-28T05:12:53Z</time>
      </trkpt>
      <trkpt lat="35.008030" lon="-114.392530">
        <ele>723.876</ele>
        <time>2018-12-28T05:13:13Z</time>
      </trkpt>
      <trkpt lat="35.007990" lon="-114.392630">
        <ele>723.334</ele>
        <time>2018-12-28T05:13:33Z</time>
      </trkpt>
      <trkpt lat="35.007920" lon="-114.392780">
        <ele>722.029</ele>
        <time>2018-12-28T05:13:53Z</time>
      </trkpt>
      <trkpt lat="35.007830" lon="-114.392920">
        <ele>721.020</ele>
        <time>2018-12-28T05:14:13Z</time>
      </trkpt>
      <trkpt lat="35.007750" lon="-114.393050">
        <ele>720.135</ele>
        <time>2018-12-28T05:14:33Z</time>
      </trkpt>
      <trkpt lat="35.007630" lon="-114.393210">
        <ele>719.186</ele>
        <time>2018-12-28T05:14:53Z</time>
      </trkpt>
      <trkpt lat="35.007520" lon="-114.393350">
        <ele>718.329</ele>
        <time>2018-12-28T05:15:13Z</time>
      </trkpt>
      <trkpt lat="35.007410" lon="-114.393470">
        <ele>717.689</ele>
        <time>2018-12-28T05:15:33Z</time>
      </trkpt>
      <trkpt lat="35.007300" lon="-114.393610">
        <ele>717.294</ele>
        <time>2018-12-28T05:15:53Z</time>
      </trkpt>
      <trkpt lat="35.007220" lon="-114.393700">
        <ele>716.957</ele>
        <time>2018-12-28T05:16:13Z</time>
      </trkpt>
      <trkpt lat="35.007110" lon="-114.393820">
        <ele>716.522</ele>
        <time>2018-12-28T05:16:33Z</time>
      </trkpt>
      <trkpt lat="35.007010" lon="-114.393920">
        <ele>716.208</ele>
        <time>2018-12-28T05:16:53Z</time>
      </trkpt>
      <trkpt lat="35.006920" lon="-114.393990">
        <ele>715.872</ele>
        <time>2018-12-28T05:17:13Z</time>
      </trkpt>
      <trkpt lat="35.006800" lon="-114.394070">
        <ele>715.250</ele>
        <time>2018-12-28T05:17:33Z</time>
      </trkpt>
      <trkpt lat="35.006700" lon="-114.394140">
        <ele>714.675</ele>
        <time>2018-12-28T05:17:53Z</time>
      </trkpt>
      <trkpt lat="35.006520" lon="-114.394250">
        <ele>713.196</ele>
        <time>2018-12-28T05:18:13Z</time>
      </trkpt>
      <trkpt lat="35.006330" lon="-114.394350">
        <ele>711.321</ele>
        <time>2018-12-28T05:18:33Z</time>
      </trkpt>
      <trkpt lat="35.006170" lon="-114.394440">
        <ele>709.812</ele>
        <time>2018-12-28T05:18:53Z</time>
      </trkpt>
      <trkpt lat="35.006040" lon="-114.394510">
        <ele>708.685</ele>
        <time>2018-12-28T05:19:13Z</time>
      </trkpt>
      <trkpt lat="35.005880" lon="-114.394640">
        <ele>707.865</ele>
        <time>2018-12-28T05:19:33Z</time>
      </trkpt>
      <trkpt lat="35.005770" lon="-114.394760">
        <ele>707.421</ele>
        <time>2018-12-28T05:19:53Z</time>
      </trkpt>
      <trkpt lat="35.005690" lon="-114.394870">
        <ele>706.941</ele>
        <time>2018-12-28T05:20:13Z</time>
      </trkpt>
      <trkpt lat="35.005610" lon="-114.394980">
        <ele>706.705</ele>
        <time>2018-12-28T05:20:33Z</time>
      </trkpt>
      <trkpt lat="35.005550" lon="-114.395080">
        <ele>706.508</ele>
        <time>2018-12-28T05:20:53Z</time>
      </trkpt>
      <trkpt lat="35.005500" lon="-114.395200">
        <ele>706.375</ele>
        <time>2018-12-28T05:21:13Z</time>
      </trkpt>
      <trkpt lat="35.005440" lon="-114.395350">
        <ele>705.983</ele>
        <time>2018-12-28T05:21:33Z</time>
      </trkpt>
      <trkpt lat="35.005400" lon="-114.395500">
        <ele>705.518</ele>
        <time>2018-12-28T05:21:53Z</time>
      </trkpt>
      <trkpt lat="35.005340" lon="-114.395730">
        <ele>704.859</ele>
        <time>2018-12-28T05:22:13Z</time>
      </trkpt>
      <trkpt lat="35.005290" lon="-114.396010">
        <ele>703.884</ele>
        <time>2018-12-28T05:22:33Z</time>
      </trkpt>
      <trkpt lat="35.005250" lon="-114.396250">
        <ele>703.025</ele>
        <time>2018-12-28T05:22:53Z</time>
      </trkpt>
      <trkpt lat="35.005220" lon="-114.396490">
        <ele>702.138</ele>
        <time>2018-12-28T05:23:13Z</time>
      </trkpt>
      <trkpt lat="35.005200" lon="-114.396770">
        <ele>700.978</ele>
        <time>2018-12-28T05:23:33Z</time>
      </trkpt>
      <trkpt lat="35.005170" lon="-114.397090">
        <ele>699.153</ele>
        <time>2018-12-28T05:23:53Z</time>
      </trkpt>
      <trkpt lat="35.005120" lon="-114.397360">
        <ele>697.004</ele>
        <time>2018-12-28T05:24:13Z</time>
      </trkpt>
      <trkpt lat="35.005040" lon="-114.397660">
        <ele>695.914</ele>
        <time>2018-12-28T05:24:33Z</time>
      </trkpt>
      <trkpt lat="35.004940" lon="-114.397970">
        <ele>695.408</ele>
        <time>2018-12-28T05:24:53Z</time>
      </trkpt>
      <trkpt lat="35.004860" lon="-114.398220">
        <ele>694.888</ele>
        <time>2018-12-28T05:25:13Z</time>
      </trkpt>
      <trkpt lat="35.004810" lon="-114.398370">
        <ele>694.896</ele>
        <time>2018-12-28T05:25:33Z</time>
      </trkpt>
      <trkpt lat="35.004720" lon="-114.398610">
        <ele>694.541</ele>
        <time>2018-12-28T05:25:53Z</time>
      </trkpt>
      <trkpt lat="35.004650" lon="-114.398750">
        <ele>694.342</ele>
        <time>2018-12-28T05:26:13Z</time>
      </trkpt>
      <trkpt lat="35.004550" lon="-114.398940">
        <ele>693.797</ele>
        <time>2018-12-28T05:26:33Z</time>
      </trkpt>
      <trkpt lat="35.004430" lon="-114.399160">
        <ele>692.938</ele>
        <time>2018-12-28T05:26:53Z</time>
      </trkpt>
      <trkpt lat="35.004310" lon="-114.399360">
        <ele>691.951</ele>
        <time>2018-12-28T05:27:13Z</time>
      </trkpt>
      <trkpt lat="35.004160" lon="-114.399600">
        <ele>690.621</ele>
        <time>2018-12-28T05:27:33Z</time>
      </trkpt>
      <trkpt lat="35.004030" lon="-114.399840">
        <ele>689.352</ele>
        <time>2018-12-28T05:27:53Z</time>
      </trkpt>
      <trkpt lat="35.003910" lon="-114.400090">
        <ele>688.053</ele>
        <time>2018-12-28T05:28:13Z</time>
      </trkpt>
      <trkpt lat="35.003810" lon="-114.400300">
        <ele>687.108</ele>
        <time>2018-12-28T05:28:33Z</time>
      </trkpt>
      <trkpt lat="35.003680" lon="-114.400590">
        <ele>686.008</ele>
        <time>2018-12-28T05:28:53Z</time>
      </trkpt>
      <trkpt lat="35.003550" lon="-114.400900">
        <ele>685.418</ele>
        <time>2018-12-28T05:29:13Z</time>
      </trkpt>
      <trkpt lat="35.003360" lon="-114.401360">
        <ele>683.286</ele>
        <time>2018-12-28T05:29:33Z</time>
      </trkpt>
      <trkpt lat="35.003160" lon="-114.401820">
        <ele>680.771</ele>
        <time>2018-12-28T05:29:53Z</time>
      </trkpt>
      <trkpt lat="35.002920" lon="-114.402380">
        <ele>678.582</ele>
        <time>2018-12-28T05:30:13Z</time>
      </trkpt>
      <trkpt lat="35.002780" lon="-114.402680">
        <ele>677.437</ele>
        <time>2018-12-28T05:30:33Z</time>
      </trkpt>
      <trkpt lat="35.002670" lon="-114.402910">
        <ele>676.678</ele>
        <time>2018-12-28T05:30:53Z</time>
      </trkpt>
      <trkpt lat="35.002540" lon="-114.403180">
        <ele>675.761</ele>
        <time>2018-12-28T05:31:13Z</time>
      </trkpt>
      <trkpt lat="35.002430" lon="-114.403410">
        <ele>675.011</ele>
        <time>2018-12-28T05:31:33Z</time>
      </trkpt>
      <trkpt lat="35.002270" lon="-114.403710">
        <ele>674.144</ele>
        <time>2018-12-28T05:31:53Z</time>
      </trkpt>
      <trkpt lat="35.002150" lon="-114.403920">
        <ele>673.605</ele>
        <time>2018-12-28T05:32:13Z</time>
      </trkpt>
      <trkpt lat="35.002020" lon="-114.404140">
        <ele>673.215</ele>
        <time>2018-12-28T05:32:33Z</time>
      </trkpt>
      <trkpt lat="35.001830" lon="-114.404450">
        <ele>672.608</ele>
        <time>2018-12-28T05:32:53Z</time>
      </trkpt>
      <trkpt lat="35.001380" lon="-114.405200">
        <ele>667.227</ele>
        <time>2018-12-28T05:33:13Z</time>
      </trkpt>
      <trkpt lat="35.001210" lon="-114.405480">
        <ele>665.315</ele>
        <time>2018-12-28T05:33:33Z</time>
      </trkpt>
      <trkpt lat="35.001140" lon="-114.405600">
        <ele>664.530</ele>
        <time>2018-12-28T05:33:53Z</time>
      </trkpt>
      <trkpt lat="35.001040" lon="-114.405750">
        <ele>663.891</ele>
        <time>2018-12-28T05:34:13Z</time>
      </trkpt>
      <trkpt lat="35.000960" lon="-114.405890">
        <ele>663.426</ele>
        <time>2018-12-28T05:34:33Z</time>
      </trkpt>
      <trkpt lat="35.000890" lon="-114.406020">
        <ele>662.757</ele>
        <time>2018-12-28T05:34:53Z</time>
      </trkpt>
      <trkpt lat="35.000890" lon="-114.406024">
        <ele>662.710</ele>
        <time>2018-12-28T05:35:13Z</time>
      </trkpt>
      <trkpt lat="35.000840" lon="-114.406140">
        <ele>662.160</ele>
        <time>2018-12-28T05:35:33Z</time>
      </trkpt>
      <trkpt lat="35.000800" lon="-114.406260">
        <ele>661.585</ele>
        <time>2018-12-28T05:35:53Z</time>
      </trkpt>
      <trkpt lat="35.000760" lon="-114.406370">
        <ele>661.089</ele>
        <time>2018-12-28T05:36:13Z</time>
      </trkpt>
      <trkpt lat="35.000700" lon="-114.406540">
        <ele>660.417</ele>
        <time>2018-12-28T05:36:33Z</time>
      </trkpt>
      <trkpt lat="35.000640" lon="-114.406780">
        <ele>660.108</ele>
        <time>2018-12-28T05:36:53Z</time>
      </trkpt>
      <trkpt lat="35.000590" lon="-114.407060">
        <ele>660.121</ele>
        <time>2018-12-28T05:37:13Z</time>
      </trkpt>
      <trkpt lat="35.000520" lon="-114.407400">
        <ele>660.199</ele>
        <time>2018-12-28T05:37:33Z</time>
      </trkpt>
      <trkpt lat="35.000430" lon="-114.407850">
        <ele>659.884</ele>
        <time>2018-12-28T05:37:53Z</time>
      </trkpt>
      <trkpt lat="35.000350" lon="-114.408260">
        <ele>658.895</ele>
        <time>2018-12-28T05:38:13Z</time>
      </trkpt>
      <trkpt lat="35.000290" lon="-114.408550">
        <ele>657.260</ele>
        <time>2018-12-28T05:38:33Z</time>
      </trkpt>
      <trkpt lat="35.000200" lon="-114.408940">
        <ele>654.651</ele>
        <time>2018-12-28T05:38:53Z</time>
      </trkpt>
      <trkpt lat="35.000110" lon="-114.409260">
        <ele>652.544</ele>
        <time>2018-12-28T05:39:13Z</time>
      </trkpt>
      <trkpt lat="35.000020" lon="-114.409590">
        <ele>650.574</ele>
        <time>2018-12-28T05:39:33Z</time>
      </trkpt>
      <trkpt lat="34.999860" lon="-114.410100">
        <ele>647.347</ele>
        <time>2018-12-28T05:39:53Z</time>
      </trkpt>
      <trkpt lat="34.999690" lon="-114.410640">
        <ele>646.329</ele>
        <time>2018-12-28T05:40:13Z</time>
      </trkpt>
      <trkpt lat="34.999540" lon="-114.411130">
        <ele>645.421</ele>
        <time>2018-12-28T05:40:33Z</time>
      </trkpt>
      <trkpt lat="34.999430" lon="-114.411490">
        <ele>645.008</ele>
        <time>2018-12-28T05:40:53Z</time>
      </trkpt>
      <trkpt lat="34.999360" lon="-114.411760">
        <ele>644.827</ele>
        <time>2018-12-28T05:41:13Z</time>
      </trkpt>
      <trkpt lat="34.999280" lon="-114.412040">
        <ele>644.595</ele>
        <time>2018-12-28T05:41:33Z</time>
      </trkpt>
      <trkpt lat="34.999210" lon="-114.412310">
        <ele>643.950</ele>
        <time>2018-12-28T05:41:53Z</time>
      </trkpt>
      <trkpt lat="34.999120" lon="-114.412660">
        <ele>642.771</ele>
        <time>2018-12-28T05:42:13Z</time>
      </trkpt>
      <trkpt lat="34.998970" lon="-114.413350">
        <ele>639.126</ele>
        <time>2018-12-28T05:42:33Z</time>
      </trkpt>
      <trkpt lat="34.998810" lon="-114.414110">
        <ele>635.317</ele>
        <time>2018-12-28T05:42:53Z</time>
      </trkpt>
      <trkpt lat="34.998630" lon="-114.414920">
        <ele>634.670</ele>
        <time>2018-12-28T05:43:13Z</time>
      </trkpt>
      <trkpt lat="34.998570" lon="-114.415210">
        <ele>634.670</ele>
        <time>2018-12-28T05:43:33Z</time>
      </trkpt>
      <trkpt lat="34.998510" lon="-114.415460">
        <ele>634.397</ele>
        <time>2018-12-28T05:43:53Z</time>
      </trkpt>
      <trkpt lat="34.998450" lon="-114.415740">
        <ele>634.123</ele>
        <time>2018-12-28T05:44:13Z</time>
      </trkpt>
      <trkpt lat="34.998400" lon="-114.415970">
        <ele>633.825</ele>
        <time>2018-12-28T05:44:33Z</time>
      </trkpt>
      <trkpt lat="34.998370" lon="-114.416110">
        <ele>633.308</ele>
        <time>2018-12-28T05:44:53Z</time>
      </trkpt>
      <trkpt lat="34.998320" lon="-114.416410">
        <ele>632.142</ele>
        <time>2018-12-28T05:45:13Z</time>
      </trkpt>
      <trkpt lat="34.998280" lon="-114.416720">
        <ele>630.910</ele>
        <time>2018-12-28T05:45:33Z</time>
      </trkpt>
      <trkpt lat="34.998180" lon="-114.417540">
        <ele>627.815</ele>
        <time>2018-12-28T05:45:53Z</time>
      </trkpt>
      <trkpt lat="34.998120" lon="-114.418010">
        <ele>626.226</ele>
        <time>2018-12-28T05:46:13Z</time>
      </trkpt>
      <trkpt lat="34.997970" lon="-114.419120">
        <ele>622.621</ele>
        <time>2018-12-28T05:46:33Z</time>
      </trkpt>
      <trkpt lat="34.997910" lon="-114.419680">
        <ele>620.542</ele>
        <time>2018-12-28T05:46:53Z</time>
      </trkpt>
      <trkpt lat="34.997850" lon="-114.420120">
        <ele>619.025</ele>
        <time>2018-12-28T05:47:13Z</time>
      </trkpt>
      <trkpt lat="34.997560" lon="-114.422380">
        <ele>610.935</ele>
        <time>2018-12-28T05:47:33Z</time>
      </trkpt>
      <trkpt lat="34.997500" lon="-114.422870">
        <ele>609.267</ele>
        <time>2018-12-28T05:47:53Z</time>
      </trkpt>
      <trkpt lat="34.997440" lon="-114.423450">
        <ele>607.481</ele>
        <time>2018-12-28T05:48:13Z</time>
      </trkpt>
      <trkpt lat="34.997350" lon="-114.424220">
        <ele>604.119</ele>
        <time>2018-12-28T05:48:33Z</time>
      </trkpt>
      <trkpt lat="34.997310" lon="-114.424540">
        <ele>602.408</ele>
        <time>2018-12-28T05:48:53Z</time>
      </trkpt>
      <trkpt lat="34.997270" lon="-114.424850">
        <ele>601.069</ele>
        <time>2018-12-28T05:49:13Z</time>
      </trkpt>
      <trkpt lat="34.997220" lon="-114.425160">
        <ele>600.127</ele>
        <time>2018-12-28T05:49:33Z</time>
      </trkpt>
      <trkpt lat="34.997080" lon="-114.426000">
        <ele>598.722</ele>
        <time>2018-12-28T05:49:53Z</time>
      </trkpt>
      <trkpt lat="34.996930" lon="-114.426990">
        <ele>595.433</ele>
        <time>2018-12-28T05:50:13Z</time>
      </trkpt>
      <trkpt lat="34.996830" lon="-114.427570">
        <ele>592.648</ele>
        <time>2018-12-28T05:50:33Z</time>
      </trkpt>
      <trkpt lat="34.996620" lon="-114.428660">
        <ele>588.219</ele>
        <time>2018-12-28T05:50:53Z</time>
      </trkpt>
      <trkpt lat="34.996530" lon="-114.429110">
        <ele>586.642</ele>
        <time>2018-12-28T05:51:13Z</time>
      </trkpt>
      <trkpt lat="34.996500" lon="-114.429250">
        <ele>586.262</ele>
        <time>2018-12-28T05:51:33Z</time>
      </trkpt>
      <trkpt lat="34.996340" lon="-114.429940">
        <ele>583.353</ele>
        <time>2018-12-28T05:51:53Z</time>
      </trkpt>
      <trkpt lat="34.996270" lon="-114.430300">
        <ele>581.504</ele>
        <time>2018-12-28T05:52:13Z</time>
      </trkpt>
      <trkpt lat="34.996210" lon="-114.430580">
        <ele>580.014</ele>
        <time>2018-12-28T05:52:33Z</time>
      </trkpt>
      <trkpt lat="34.996150" lon="-114.430930">
        <ele>578.208</ele>
        <time>2018-12-28T05:52:53Z</time>
      </trkpt>
      <trkpt lat="34.996050" lon="-114.431500">
        <ele>576.138</ele>
        <time>2018-12-28T05:53:13Z</time>
      </trkpt>
      <trkpt lat="34.996020" lon="-114.431660">
        <ele>575.616</ele>
        <time>2018-12-28T05:53:33Z</time>
      </trkpt>
      <trkpt lat="34.995930" lon="-114.432120">
        <ele>574.531</ele>
        <time>2018-12-28T05:53:53Z</time>
      </trkpt>
      <trkpt lat="34.995880" lon="-114.432410">
        <ele>573.722</ele>
        <time>2018-12-28T05:54:13Z</time>
      </trkpt>
      <trkpt lat="34.995800" lon="-114.432780">
        <ele>572.497</ele>
        <time>2018-12-28T05:54:33Z</time>
      </trkpt>
      <trkpt lat="34.995710" lon="-114.433180">
        <ele>571.048</ele>
        <time>2018-12-28T05:54:53Z</time>
      </trkpt>
      <trkpt lat="34.995570" lon="-114.433790">
        <ele>569.261</ele>
        <time>2018-12-28T05:55:13Z</time>
      </trkpt>
      <trkpt lat="34.995500" lon="-114.434110">
        <ele>568.121</ele>
        <time>2018-12-28T05:55:33Z</time>
      </trkpt>
      <trkpt lat="34.995470" lon="-114.434250">
        <ele>567.646</ele>
        <time>2018-12-28T05:55:53Z</time>
      </trkpt>
      <trkpt lat="34.995380" lon="-114.434630">
        <ele>566.288</ele>
        <time>2018-12-28T05:56:13Z</time>
      </trkpt>
      <trkpt lat="34.995280" lon="-114.435000">
        <ele>564.616</ele>
        <time>2018-12-28T05:56:33Z</time>
      </trkpt>
      <trkpt lat="34.995240" lon="-114.435160">
        <ele>564.008</ele>
        <time>2018-12-28T05:56:53Z</time>
      </trkpt>
      <trkpt lat="34.995150" lon="-114.435540">
        <ele>563.037</ele>
        <time>2018-12-28T05:57:13Z</time>
      </trkpt>
      <trkpt lat="34.995070" lon="-114.435890">
        <ele>562.495</ele>
        <time>2018-12-28T05:57:33Z</time>
      </trkpt>
      <trkpt lat="34.995010" lon="-114.436140">
        <ele>562.060</ele>
        <time>2018-12-28T05:57:53Z</time>
      </trkpt>
      <trkpt lat="34.994970" lon="-114.436350">
        <ele>561.581</ele>
        <time>2018-12-28T05:58:13Z</time>
      </trkpt>
      <trkpt lat="34.994880" lon="-114.436780">
        <ele>560.336</ele>
        <time>2018-12-28T05:58:33Z</time>
      </trkpt>
      <trkpt lat="34.994750" lon="-114.437410">
        <ele>559.177</ele>
        <time>2018-12-28T05:58:53Z</time>
      </trkpt>
      <trkpt lat="34.994580" lon="-114.438230">
        <ele>556.680</ele>
        <time>2018-12-28T05:59:13Z</time>
      </trkpt>
      <trkpt lat="34.994440" lon="-114.438910">
        <ele>553.710</ele>
        <time>2018-12-28T05:59:33Z</time>
      </trkpt>
      <trkpt lat="34.994340" lon="-114.439380">
        <ele>552.184</ele>
        <time>2018-12-28T05:59:53Z</time>
      </trkpt>
      <trkpt lat="34.994160" lon="-114.440220">
        <ele>550.607</ele>
        <time>2018-12-28T06:00:13Z</time>
      </trkpt>
      <trkpt lat="34.994140" lon="-114.440330">
        <ele>550.417</ele>
        <time>2018-12-28T06:00:33Z</time>
      </trkpt>
      <trkpt lat="34.994110" lon="-114.440500">
        <ele>550.208</ele>
        <time>2018-12-28T06:00:53Z</time>
      </trkpt>
      <trkpt lat="34.994060" lon="-114.440730">
        <ele>549.941</ele>
        <time>2018-12-28T06:01:13Z</time>
      </trkpt>
      <trkpt lat="34.994010" lon="-114.441000">
        <ele>549.689</ele>
        <time>2018-12-28T06:01:33Z</time>
      </trkpt>
      <trkpt lat="34.993980" lon="-114.441210">
        <ele>548.984</ele>
        <time>2018-12-28T06:01:53Z</time>
      </trkpt>
      <trkpt lat="34.993950" lon="-114.441370">
        <ele>548.495</ele>
        <time>2018-12-28T06:02:13Z</time>
      </trkpt>
      <trkpt lat="34.993900" lon="-114.441780">
        <ele>547.360</ele>
        <time>2018-12-28T06:02:33Z</time>
      </trkpt>
      <trkpt lat="34.993870" lon="-114.442050">
        <ele>546.751</ele>
        <time>2018-12-28T06:02:53Z</time>
      </trkpt>
      <trkpt lat="34.993820" lon="-114.442560">
        <ele>545.524</ele>
        <time>2018-12-28T06:03:13Z</time>
      </trkpt>
      <trkpt lat="34.993800" lon="-114.442740">
        <ele>544.974</ele>
        <time>2018-12-28T06:03:33Z</time>
      </trkpt>
      <trkpt lat="34.993750" lon="-114.443210">
        <ele>543.313</ele>
        <time>2018-12-28T06:03:53Z</time>
      </trkpt>
      <trkpt lat="34.993740" lon="-114.443320">
        <ele>542.843</ele>
        <time>2018-12-28T06:04:13Z</time>
      </trkpt>
      <trkpt lat="34.993710" lon="-114.443520">
        <ele>541.807</ele>
        <time>2018-12-28T06:04:33Z</time>
      </trkpt>
      <trkpt lat="34.993650" lon="-114.444060">
        <ele>539.008</ele>
        <time>2018-12-28T06:04:53Z</time>
      </trkpt>
      <trkpt lat="34.993560" lon="-114.444840">
        <ele>536.734</ele>
        <time>2018-12-28T06:05:13Z</time>
      </trkpt>
      <trkpt lat="34.993540" lon="-114.445070">
        <ele>536.052</ele>
        <time>2018-12-28T06:05:33Z</time>
      </trkpt>
      <trkpt lat="34.993460" lon="-114.445790">
        <ele>534.067</ele>
        <time>2018-12-28T06:05:53Z</time>
      </trkpt>
      <trkpt lat="34.993390" lon="-114.446330">
        <ele>533.198</ele>
        <time>2018-12-28T06:06:13Z</time>
      </trkpt>
      <trkpt lat="34.993280" lon="-114.447270">
        <ele>529.823</ele>
        <time>2018-12-28T06:06:33Z</time>
      </trkpt>
      <trkpt lat="34.993240" lon="-114.447540">
        <ele>527.734</ele>
        <time>2018-12-28T06:06:53Z</time>
      </trkpt>
      <trkpt lat="34.993210" lon="-114.447800">
        <ele>525.837</ele>
        <time>2018-12-28T06:07:13Z</time>
      </trkpt>
      <trkpt lat="34.993140" lon="-114.448320">
        <ele>524.547</ele>
        <time>2018-12-28T06:07:33Z</time>
      </trkpt>
      <trkpt lat="34.993020" lon="-114.449240">
        <ele>522.766</ele>
        <time>2018-12-28T06:07:53Z</time>
      </trkpt>
      <trkpt lat="34.992900" lon="-114.450040">
        <ele>520.329</ele>
        <time>2018-12-28T06:08:13Z</time>
      </trkpt>
      <trkpt lat="34.992780" lon="-114.450830">
        <ele>517.021</ele>
        <time>2018-12-28T06:08:33Z</time>
      </trkpt>
      <trkpt lat="34.992660" lon="-114.451590">
        <ele>514.108</ele>
        <time>2018-12-28T06:08:53Z</time>
      </trkpt>
      <trkpt lat="34.992530" lon="-114.452430">
        <ele>511.359</ele>
        <time>2018-12-28T06:09:13Z</time>
      </trkpt>
      <trkpt lat="34.992460" lon="-114.452910">
        <ele>510.467</ele>
        <time>2018-12-28T06:09:33Z</time>
      </trkpt>
      <trkpt lat="34.992430" lon="-114.453120">
        <ele>510.022</ele>
        <time>2018-12-28T06:09:53Z</time>
      </trkpt>
      <trkpt lat="34.992390" lon="-114.453340">
        <ele>509.623</ele>
        <time>2018-12-28T06:10:13Z</time>
      </trkpt>
      <trkpt lat="34.992360" lon="-114.453590">
        <ele>509.038</ele>
        <time>2018-12-28T06:10:33Z</time>
      </trkpt>
      <trkpt lat="34.992330" lon="-114.453820">
        <ele>508.489</ele>
        <time>2018-12-28T06:10:53Z</time>
      </trkpt>
      <trkpt lat="34.992300" lon="-114.454030">
        <ele>507.782</ele>
        <time>2018-12-28T06:11:13Z</time>
      </trkpt>
      <trkpt lat="34.992270" lon="-114.454260">
        <ele>506.872</ele>
        <time>2018-12-28T06:11:33Z</time>
      </trkpt>
      <trkpt lat="34.992240" lon="-114.454450">
        <ele>505.943</ele>
        <time>2018-12-28T06:11:53Z</time>
      </trkpt>
      <trkpt lat="34.992220" lon="-114.454620">
        <ele>505.264</ele>
        <time>2018-12-28T06:12:13Z</time>
      </trkpt>
      <trkpt lat="34.992190" lon="-114.454860">
        <ele>504.110</ele>
        <time>2018-12-28T06:12:33Z</time>
      </trkpt>
      <trkpt lat="34.992160" lon="-114.455160">
        <ele>502.908</ele>
        <time>2018-12-28T06:12:53Z</time>
      </trkpt>
      <trkpt lat="34.992110" lon="-114.455630">
        <ele>501.667</ele>
        <time>2018-12-28T06:13:13Z</time>
      </trkpt>
      <trkpt lat="34.992060" lon="-114.456180">
        <ele>500.095</ele>
        <time>2018-12-28T06:13:33Z</time>
      </trkpt>
      <trkpt lat="34.992030" lon="-114.456470">
        <ele>499.780</ele>
        <time>2018-12-28T06:13:53Z</time>
      </trkpt>
      <trkpt lat="34.992000" lon="-114.456810">
        <ele>499.361</ele>
        <time>2018-12-28T06:14:13Z</time>
      </trkpt>
      <trkpt lat="34.991970" lon="-114.457080">
        <ele>499.026</ele>
        <time>2018-12-28T06:14:33Z</time>
      </trkpt>
      <trkpt lat="34.991930" lon="-114.457380">
        <ele>498.447</ele>
        <time>2018-12-28T06:14:53Z</time>
      </trkpt>
      <trkpt lat="34.991900" lon="-114.457600">
        <ele>497.690</ele>
        <time>2018-12-28T06:15:13Z</time>
      </trkpt>
      <trkpt lat="34.991870" lon="-114.457790">
        <ele>496.830</ele>
        <time>2018-12-28T06:15:33Z</time>
      </trkpt>
      <trkpt lat="34.991850" lon="-114.457910">
        <ele>496.225</ele>
        <time>2018-12-28T06:15:53Z</time>
      </trkpt>
      <trkpt lat="34.991800" lon="-114.458150">
        <ele>495.026</ele>
        <time>2018-12-28T06:16:13Z</time>
      </trkpt>
      <trkpt lat="34.991740" lon="-114.458450">
        <ele>493.608</ele>
        <time>2018-12-28T06:16:33Z</time>
      </trkpt>
      <trkpt lat="34.991610" lon="-114.459020">
        <ele>491.208</ele>
        <time>2018-12-28T06:16:53Z</time>
      </trkpt>
      <trkpt lat="34.991490" lon="-114.459530">
        <ele>489.745</ele>
        <time>2018-12-28T06:17:13Z</time>
      </trkpt>
      <trkpt lat="34.991360" lon="-114.460110">
        <ele>488.253</ele>
        <time>2018-12-28T06:17:33Z</time>
      </trkpt>
      <trkpt lat="34.991190" lon="-114.460880">
        <ele>485.928</ele>
        <time>2018-12-28T06:17:53Z</time>
      </trkpt>
      <trkpt lat="34.991010" lon="-114.461670">
        <ele>483.639</ele>
        <time>2018-12-28T06:18:13Z</time>
      </trkpt>
      <trkpt lat="34.990940" lon="-114.462000">
        <ele>482.354</ele>
        <time>2018-12-28T06:18:33Z</time>
      </trkpt>
      <trkpt lat="34.990840" lon="-114.462460">
        <ele>480.175</ele>
        <time>2018-12-28T06:18:53Z</time>
      </trkpt>
      <trkpt lat="34.990720" lon="-114.462960">
        <ele>477.988</ele>
        <time>2018-12-28T06:19:13Z</time>
      </trkpt>
      <trkpt lat="34.990620" lon="-114.463400">
        <ele>476.558</ele>
        <time>2018-12-28T06:19:33Z</time>
      </trkpt>
      <trkpt lat="34.990530" lon="-114.463800">
        <ele>475.561</ele>
        <time>2018-12-28T06:19:53Z</time>
      </trkpt>
      <trkpt lat="34.990390" lon="-114.464410">
        <ele>473.121</ele>
        <time>2018-12-28T06:20:13Z</time>
      </trkpt>
      <trkpt lat="34.990220" lon="-114.465140">
        <ele>470.713</ele>
        <time>2018-12-28T06:20:33Z</time>
      </trkpt>
      <trkpt lat="34.990060" lon="-114.465840">
        <ele>468.308</ele>
        <time>2018-12-28T06:20:53Z</time>
      </trkpt>
      <trkpt lat="34.989880" lon="-114.466650">
        <ele>465.499</ele>
        <time>2018-12-28T06:21:13Z</time>
      </trkpt>
      <trkpt lat="34.989740" lon="-114.467270">
        <ele>464.127</ele>
        <time>2018-12-28T06:21:33Z</time>
      </trkpt>
      <trkpt lat="34.989560" lon="-114.468060">
        <ele>462.292</ele>
        <time>2018-12-28T06:21:53Z</time>
      </trkpt>
      <trkpt lat="34.989330" lon="-114.469070">
        <ele>458.633</ele>
        <time>2018-12-28T06:22:13Z</time>
      </trkpt>
      <trkpt lat="34.989060" lon="-114.470200">
        <ele>454.888</ele>
        <time>2018-12-28T06:22:33Z</time>
      </trkpt>
      <trkpt lat="34.989020" lon="-114.470420">
        <ele>454.239</ele>
        <time>2018-12-28T06:22:53Z</time>
      </trkpt>
      <trkpt lat="34.988850" lon="-114.471130">
        <ele>452.042</ele>
        <time>2018-12-28T06:23:13Z</time>
      </trkpt>
      <trkpt lat="34.988670" lon="-114.471870">
        <ele>449.842</ele>
        <time>2018-12-28T06:23:33Z</time>
      </trkpt>
      <trkpt lat="34.988490" lon="-114.472640">
        <ele>446.874</ele>
        <time>2018-12-28T06:23:53Z</time>
      </trkpt>
      <trkpt lat="34.988340" lon="-114.473280">
        <ele>444.456</ele>
        <time>2018-12-28T06:24:13Z</time>
      </trkpt>
      <trkpt lat="34.988210" lon="-114.473790">
        <ele>442.921</ele>
        <time>2018-12-28T06:24:33Z</time>
      </trkpt>
      <trkpt lat="34.988030" lon="-114.474560">
        <ele>440.708</ele>
        <time>2018-12-28T06:24:53Z</time>
      </trkpt>
      <trkpt lat="34.987700" lon="-114.475980">
        <ele>436.110</ele>
        <time>2018-12-28T06:25:13Z</time>
      </trkpt>
      <trkpt lat="34.987480" lon="-114.476880">
        <ele>431.968</ele>
        <time>2018-12-28T06:25:33Z</time>
      </trkpt>
      <trkpt lat="34.987300" lon="-114.477650">
        <ele>429.863</ele>
        <time>2018-12-28T06:25:53Z</time>
      </trkpt>
      <trkpt lat="34.987090" lon="-114.478560">
        <ele>429.094</ele>
        <time>2018-12-28T06:26:13Z</time>
      </trkpt>
      <trkpt lat="34.986790" lon="-114.479860">
        <ele>426.279</ele>
        <time>2018-12-28T06:26:33Z</time>
      </trkpt>
      <trkpt lat="34.986690" lon="-114.480270">
        <ele>423.070</ele>
        <time>2018-12-28T06:26:53Z</time>
      </trkpt>
      <trkpt lat="34.986480" lon="-114.481190">
        <ele>417.723</ele>
        <time>2018-12-28T06:27:13Z</time>
      </trkpt>
      <trkpt lat="34.986200" lon="-114.482320">
        <ele>416.123</ele>
        <time>2018-12-28T06:27:33Z</time>
      </trkpt>
      <trkpt lat="34.986100" lon="-114.482750">
        <ele>415.551</ele>
        <time>2018-12-28T06:27:53Z</time>
      </trkpt>
      <trkpt lat="34.986030" lon="-114.483050">
        <ele>414.201</ele>
        <time>2018-12-28T06:28:13Z</time>
      </trkpt>
      <trkpt lat="34.985880" lon="-114.483670">
        <ele>409.111</ele>
        <time>2018-12-28T06:28:33Z</time>
      </trkpt>
      <trkpt lat="34.985883" lon="-114.483670">
        <ele>409.108</ele>
        <time>2018-12-28T06:28:53Z</time>
      </trkpt>
      <trkpt lat="34.985830" lon="-114.483910">
        <ele>407.788</ele>
        <time>2018-12-28T06:29:13Z</time>
      </trkpt>
      <trkpt lat="34.985770" lon="-114.484130">
        <ele>406.756</ele>
        <time>2018-12-28T06:29:33Z</time>
      </trkpt>
      <trkpt lat="34.985490" lon="-114.485400">
        <ele>404.681</ele>
        <time>2018-12-28T06:29:53Z</time>
      </trkpt>
      <trkpt lat="34.985270" lon="-114.486390">
        <ele>404.392</ele>
        <time>2018-12-28T06:30:13Z</time>
      </trkpt>
      <trkpt lat="34.985010" lon="-114.487550">
        <ele>401.697</ele>
        <time>2018-12-28T06:30:33Z</time>
      </trkpt>
      <trkpt lat="34.984760" lon="-114.488700">
        <ele>396.628</ele>
        <time>2018-12-28T06:30:53Z</time>
      </trkpt>
      <trkpt lat="34.984630" lon="-114.489310">
        <ele>394.031</ele>
        <time>2018-12-28T06:31:13Z</time>
      </trkpt>
      <trkpt lat="34.984360" lon="-114.490470">
        <ele>390.871</ele>
        <time>2018-12-28T06:31:33Z</time>
      </trkpt>
      <trkpt lat="34.984270" lon="-114.490860">
        <ele>389.334</ele>
        <time>2018-12-28T06:31:53Z</time>
      </trkpt>
      <trkpt lat="34.984030" lon="-114.491900">
        <ele>385.555</ele>
        <time>2018-12-28T06:32:13Z</time>
      </trkpt>
      <trkpt lat="34.984000" lon="-114.492070">
        <ele>384.710</ele>
        <time>2018-12-28T06:32:33Z</time>
      </trkpt>
      <trkpt lat="34.983910" lon="-114.492430">
        <ele>383.108</ele>
        <time>2018-12-28T06:32:53Z</time>
      </trkpt>
      <trkpt lat="34.983800" lon="-114.492910">
        <ele>381.276</ele>
        <time>2018-12-28T06:33:13Z</time>
      </trkpt>
      <trkpt lat="34.983670" lon="-114.493480">
        <ele>379.174</ele>
        <time>2018-12-28T06:33:33Z</time>
      </trkpt>
      <trkpt lat="34.983500" lon="-114.494240">
        <ele>377.669</ele>
        <time>2018-12-28T06:33:53Z</time>
      </trkpt>
      <trkpt lat="34.983270" lon="-114.495260">
        <ele>374.690</ele>
        <time>2018-12-28T06:34:13Z</time>
      </trkpt>
      <trkpt lat="34.983040" lon="-114.496260">
        <ele>369.765</ele>
        <time>2018-12-28T06:34:33Z</time>
      </trkpt>
      <trkpt lat="34.982940" lon="-114.496700">
        <ele>368.676</ele>
        <time>2018-12-28T06:34:53Z</time>
      </trkpt>
      <trkpt lat="34.982700" lon="-114.497820">
        <ele>366.949</ele>
        <time>2018-12-28T06:35:13Z</time>
      </trkpt>
      <trkpt lat="34.982600" lon="-114.498250">
        <ele>365.659</ele>
        <time>2018-12-28T06:35:33Z</time>
      </trkpt>
      <trkpt lat="34.982470" lon="-114.498860">
        <ele>363.298</ele>
        <time>2018-12-28T06:35:53Z</time>
      </trkpt>
      <trkpt lat="34.982370" lon="-114.499290">
        <ele>361.515</ele>
        <time>2018-12-28T06:36:13Z</time>
      </trkpt>
      <trkpt lat="34.982250" lon="-114.499800">
        <ele>359.626</ele>
        <time>2018-12-28T06:36:33Z</time>
      </trkpt>
      <trkpt lat="34.982160" lon="-114.500200">
        <ele>358.008</ele>
        <time>2018-12-28T06:36:53Z</time>
      </trkpt>
      <trkpt lat="34.981990" lon="-114.500890">
        <ele>355.572</ele>
        <time>2018-12-28T06:37:13Z</time>
      </trkpt>
      <trkpt lat="34.981820" lon="-114.501620">
        <ele>353.090</ele>
        <time>2018-12-28T06:37:33Z</time>
      </trkpt>
      <trkpt lat="34.981610" lon="-114.502510">
        <ele>350.085</ele>
        <time>2018-12-28T06:37:53Z</time>
      </trkpt>
      <trkpt lat="34.981550" lon="-114.502780">
        <ele>349.326</ele>
        <time>2018-12-28T06:38:13Z</time>
      </trkpt>
      <trkpt lat="34.981470" lon="-114.503110">
        <ele>348.681</ele>
        <time>2018-12-28T06:38:33Z</time>
      </trkpt>
      <trkpt lat="34.981410" lon="-114.503370">
        <ele>347.862</ele>
        <time>2018-12-28T06:38:53Z</time>
      </trkpt>
      <trkpt lat="34.981230" lon="-114.504150">
        <ele>344.955</ele>
        <time>2018-12-28T06:39:13Z</time>
      </trkpt>
      <trkpt lat="34.980960" lon="-114.505310">
        <ele>341.655</ele>
        <time>2018-12-28T06:39:33Z</time>
      </trkpt>
      <trkpt lat="34.980870" lon="-114.505690">
        <ele>340.615</ele>
        <time>2018-12-28T06:39:53Z</time>
      </trkpt>
      <trkpt lat="34.980660" lon="-114.506580">
        <ele>337.765</ele>
        <time>2018-12-28T06:40:13Z</time>
      </trkpt>
      <trkpt lat="34.980420" lon="-114.507640">
        <ele>335.011</ele>
        <time>2018-12-28T06:40:33Z</time>
      </trkpt>
      <trkpt lat="34.980370" lon="-114.507880">
        <ele>334.208</ele>
        <time>2018-12-28T06:40:53Z</time>
      </trkpt>
      <trkpt lat="34.980220" lon="-114.508550">
        <ele>331.394</ele>
        <time>2018-12-28T06:41:13Z</time>
      </trkpt>
      <trkpt lat="34.979990" lon="-114.509570">
        <ele>329.172</ele>
        <time>2018-12-28T06:41:33Z</time>
      </trkpt>
      <trkpt lat="34.979790" lon="-114.510430">
        <ele>326.157</ele>
        <time>2018-12-28T06:41:53Z</time>
      </trkpt>
      <trkpt lat="34.979690" lon="-114.510910">
        <ele>325.178</ele>
        <time>2018-12-28T06:42:13Z</time>
      </trkpt>
      <trkpt lat="34.979400" lon="-114.512180">
        <ele>321.353</ele>
        <time>2018-12-28T06:42:33Z</time>
      </trkpt>
      <trkpt lat="34.979330" lon="-114.512460">
        <ele>320.264</ele>
        <time>2018-12-28T06:42:53Z</time>
      </trkpt>
      <trkpt lat="34.979280" lon="-114.512660">
        <ele>319.337</ele>
        <time>2018-12-28T06:43:13Z</time>
      </trkpt>
      <trkpt lat="34.979160" lon="-114.513200">
        <ele>317.797</ele>
        <time>2018-12-28T06:43:33Z</time>
      </trkpt>
      <trkpt lat="34.979000" lon="-114.513890">
        <ele>315.939</ele>
        <time>2018-12-28T06:43:53Z</time>
      </trkpt>
      <trkpt lat="34.978890" lon="-114.514340">
        <ele>314.101</ele>
        <time>2018-12-28T06:44:13Z</time>
      </trkpt>
      <trkpt lat="34.978750" lon="-114.514960">
        <ele>311.721</ele>
        <time>2018-12-28T06:44:33Z</time>
      </trkpt>
      <trkpt lat="34.978650" lon="-114.515380">
        <ele>311.308</ele>
        <time>2018-12-28T06:44:53Z</time>
      </trkpt>
      <trkpt lat="34.978590" lon="-114.515690">
        <ele>310.856</ele>
        <time>2018-12-28T06:45:13Z</time>
      </trkpt>
      <trkpt lat="34.978540" lon="-114.515940">
        <ele>310.284</ele>
        <time>2018-12-28T06:45:33Z</time>
      </trkpt>
      <trkpt lat="34.978500" lon="-114.516160">
        <ele>309.579</ele>
        <time>2018-12-28T06:45:53Z</time>
      </trkpt>
      <trkpt lat="34.978340" lon="-114.517160">
        <ele>305.880</ele>
        <time>2018-12-28T06:46:13Z</time>
      </trkpt>
      <trkpt lat="34.978290" lon="-114.517450">
        <ele>305.225</ele>
        <time>2018-12-28T06:46:33Z</time>
      </trkpt>
      <trkpt lat="34.978100" lon="-114.518500">
        <ele>301.766</ele>
        <time>2018-12-28T06:46:53Z</time>
      </trkpt>
      <trkpt lat="34.977970" lon="-114.519270">
        <ele>300.089</ele>
        <time>2018-12-28T06:47:13Z</time>
      </trkpt>
      <trkpt lat="34.977920" lon="-114.519540">
        <ele>299.749</ele>
        <time>2018-12-28T06:47:33Z</time>
      </trkpt>
      <trkpt lat="34.977790" lon="-114.520320">
        <ele>297.297</ele>
        <time>2018-12-28T06:47:53Z</time>
      </trkpt>
      <trkpt lat="34.977680" lon="-114.520990">
        <ele>294.623</ele>
        <time>2018-12-28T06:48:13Z</time>
      </trkpt>
      <trkpt lat="34.977520" lon="-114.521910">
        <ele>293.425</ele>
        <time>2018-12-28T06:48:33Z</time>
      </trkpt>
      <trkpt lat="34.977430" lon="-114.522420">
        <ele>291.808</ele>
        <time>2018-12-28T06:48:53Z</time>
      </trkpt>
      <trkpt lat="34.977130" lon="-114.524160">
        <ele>286.762</ele>
        <time>2018-12-28T06:49:13Z</time>
      </trkpt>
      <trkpt lat="34.977100" lon="-114.524350">
        <ele>286.190</ele>
        <time>2018-12-28T06:49:33Z</time>
      </trkpt>
      <trkpt lat="34.976700" lon="-114.526880">
        <ele>278.645</ele>
        <time>2018-12-28T06:49:53Z</time>
      </trkpt>
      <trkpt lat="34.976570" lon="-114.527620">
        <ele>276.586</ele>
        <time>2018-12-28T06:50:13Z</time>
      </trkpt>
      <trkpt lat="34.976460" lon="-114.528250">
        <ele>275.141</ele>
        <time>2018-12-28T06:50:33Z</time>
      </trkpt>
      <trkpt lat="34.976220" lon="-114.529550">
        <ele>271.062</ele>
        <time>2018-12-28T06:50:53Z</time>
      </trkpt>
      <trkpt lat="34.976100" lon="-114.530130">
        <ele>269.115</ele>
        <time>2018-12-28T06:51:13Z</time>
      </trkpt>
      <trkpt lat="34.975960" lon="-114.530810">
        <ele>267.625</ele>
        <time>2018-12-28T06:51:33Z</time>
      </trkpt>
      <trkpt lat="34.975790" lon="-114.531510">
        <ele>266.034</ele>
        <time>2018-12-28T06:51:53Z</time>
      </trkpt>
      <trkpt lat="34.975670" lon="-114.532020">
        <ele>264.455</ele>
        <time>2018-12-28T06:52:13Z</time>
      </trkpt>
      <trkpt lat="34.975610" lon="-114.532220">
        <ele>263.810</ele>
        <time>2018-12-28T06:52:33Z</time>
      </trkpt>
      <trkpt lat="34.975270" lon="-114.533580">
        <ele>260.708</ele>
        <time>2018-12-28T06:52:53Z</time>
      </trkpt>
      <trkpt lat="34.975180" lon="-114.533940">
        <ele>259.646</ele>
        <time>2018-12-28T06:53:13Z</time>
      </trkpt>
      <trkpt lat="34.975110" lon="-114.534220">
        <ele>258.864</ele>
        <time>2018-12-28T06:53:33Z</time>
      </trkpt>
      <trkpt lat="34.975020" lon="-114.534580">
        <ele>257.839</ele>
        <time>2018-12-28T06:53:53Z</time>
      </trkpt>
      <trkpt lat="34.974730" lon="-114.535710">
        <ele>255.330</ele>
        <time>2018-12-28T06:54:13Z</time>
      </trkpt>
      <trkpt lat="34.974540" lon="-114.536420">
        <ele>253.675</ele>
        <time>2018-12-28T06:54:33Z</time>
      </trkpt>
      <trkpt lat="34.974240" lon="-114.537610">
        <ele>251.416</ele>
        <time>2018-12-28T06:54:53Z</time>
      </trkpt>
      <trkpt lat="34.974010" lon="-114.538540">
        <ele>249.589</ele>
        <time>2018-12-28T06:55:13Z</time>
      </trkpt>
      <trkpt lat="34.973440" lon="-114.540810">
        <ele>244.449</ele>
        <time>2018-12-28T06:55:33Z</time>
      </trkpt>
      <trkpt lat="34.973320" lon="-114.541280">
        <ele>242.337</ele>
        <time>2018-12-28T06:55:53Z</time>
      </trkpt>
      <trkpt lat="34.973200" lon="-114.541770">
        <ele>239.349</ele>
        <time>2018-12-28T06:56:13Z</time>
      </trkpt>
      <trkpt lat="34.973110" lon="-114.542170">
        <ele>239.113</ele>
        <time>2018-12-28T06:56:33Z</time>
      </trkpt>
      <trkpt lat="34.972990" lon="-114.542700">
        <ele>239.008</ele>
        <time>2018-12-28T06:56:53Z</time>
      </trkpt>
      <trkpt lat="34.972850" lon="-114.543360">
        <ele>238.016</ele>
        <time>2018-12-28T06:57:13Z</time>
      </trkpt>
      <trkpt lat="34.972640" lon="-114.544360">
        <ele>234.524</ele>
        <time>2018-12-28T06:57:33Z</time>
      </trkpt>
      <trkpt lat="34.972430" lon="-114.545210">
        <ele>232.979</ele>
        <time>2018-12-28T06:57:53Z</time>
      </trkpt>
      <trkpt lat="34.972220" lon="-114.546070">
        <ele>232.450</ele>
        <time>2018-12-28T06:58:13Z</time>
      </trkpt>
      <trkpt lat="34.972000" lon="-114.547070">
        <ele>229.725</ele>
        <time>2018-12-28T06:58:33Z</time>
      </trkpt>
      <trkpt lat="34.971850" lon="-114.547780">
        <ele>227.236</ele>
        <time>2018-12-28T06:58:53Z</time>
      </trkpt>
      <trkpt lat="34.971810" lon="-114.547950">
        <ele>226.849</ele>
        <time>2018-12-28T06:59:13Z</time>
      </trkpt>
      <trkpt lat="34.971730" lon="-114.548270">
        <ele>226.339</ele>
        <time>2018-12-28T06:59:33Z</time>
      </trkpt>
      <trkpt lat="34.971520" lon="-114.548940">
        <ele>225.728</ele>
        <time>2018-12-28T06:59:53Z</time>
      </trkpt>
      <trkpt lat="34.971480" lon="-114.549080">
        <ele>225.789</ele>
        <time>2018-12-28T07:00:13Z</time>
      </trkpt>
      <trkpt lat="34.971190" lon="-114.549980">
        <ele>221.917</ele>
        <time>2018-12-28T07:00:33Z</time>
      </trkpt>
      <trkpt lat="34.971110" lon="-114.550240">
        <ele>220.908</ele>
        <time>2018-12-28T07:00:53Z</time>
      </trkpt>
      <trkpt lat="34.970930" lon="-114.550800">
        <ele>220.075</ele>
        <time>2018-12-28T07:01:13Z</time>
      </trkpt>
      <trkpt lat="34.970680" lon="-114.551610">
        <ele>218.913</ele>
        <time>2018-12-28T07:01:33Z</time>
      </trkpt>
      <trkpt lat="34.970430" lon="-114.552350">
        <ele>215.248</ele>
        <time>2018-12-28T07:01:53Z</time>
      </trkpt>
      <trkpt lat="34.970170" lon="-114.553110">
        <ele>213.399</ele>
        <time>2018-12-28T07:02:13Z</time>
      </trkpt>
      <trkpt lat="34.970030" lon="-114.553550">
        <ele>212.594</ele>
        <time>2018-12-28T07:02:33Z</time>
      </trkpt>
      <trkpt lat="34.969690" lon="-114.554540">
        <ele>209.435</ele>
        <time>2018-12-28T07:02:53Z</time>
      </trkpt>
      <trkpt lat="34.969470" lon="-114.555180">
        <ele>208.528</ele>
        <time>2018-12-28T07:03:13Z</time>
      </trkpt>
      <trkpt lat="34.969360" lon="-114.555500">
        <ele>208.338</ele>
        <time>2018-12-28T07:03:33Z</time>
      </trkpt>
      <trkpt lat="34.969340" lon="-114.555550">
        <ele>208.343</ele>
        <time>2018-12-28T07:03:53Z</time>
      </trkpt>
      <trkpt lat="34.969020" lon="-114.556500">
        <ele>207.964</ele>
        <time>2018-12-28T07:04:13Z</time>
      </trkpt>
      <trkpt lat="34.968750" lon="-114.557220">
        <ele>204.310</ele>
        <time>2018-12-28T07:04:33Z</time>
      </trkpt>
      <trkpt lat="34.968420" lon="-114.558110">
        <ele>201.908</ele>
        <time>2018-12-28T07:04:53Z</time>
      </trkpt>
      <trkpt lat="34.968340" lon="-114.558330">
        <ele>201.857</ele>
        <time>2018-12-28T07:05:13Z</time>
      </trkpt>
      <trkpt lat="34.968290" lon="-114.558500">
        <ele>201.865</ele>
        <time>2018-12-28T07:05:33Z</time>
      </trkpt>
      <trkpt lat="34.968240" lon="-114.558710">
        <ele>201.470</ele>
        <time>2018-12-28T07:05:53Z</time>
      </trkpt>
      <trkpt lat="34.968200" lon="-114.558850">
        <ele>200.961</ele>
        <time>2018-12-28T07:06:13Z</time>
      </trkpt>
      <trkpt lat="34.968170" lon="-114.559050">
        <ele>200.066</ele>
        <time>2018-12-28T07:06:33Z</time>
      </trkpt>
      <trkpt lat="34.968150" lon="-114.559210">
        <ele>199.017</ele>
        <time>2018-12-28T07:06:53Z</time>
      </trkpt>
      <trkpt lat="34.968130" lon="-114.559480">
        <ele>197.570</ele>
        <time>2018-12-28T07:07:13Z</time>
      </trkpt>
      <trkpt lat="34.968100" lon="-114.559840">
        <ele>195.740</ele>
        <time>2018-12-28T07:07:33Z</time>
      </trkpt>
      <trkpt lat="34.968080" lon="-114.560120">
        <ele>195.069</ele>
        <time>2018-12-28T07:07:53Z</time>
      </trkpt>
      <trkpt lat="34.968040" lon="-114.560910">
        <ele>191.404</ele>
        <time>2018-12-28T07:08:13Z</time>
      </trkpt>
      <trkpt lat="34.968000" lon="-114.561400">
        <ele>189.224</ele>
        <time>2018-12-28T07:08:33Z</time>
      </trkpt>
      <trkpt lat="34.967980" lon="-114.561690">
        <ele>188.208</ele>
        <time>2018-12-28T07:08:53Z</time>
      </trkpt>
      <trkpt lat="34.967950" lon="-114.562060">
        <ele>187.129</ele>
        <time>2018-12-28T07:09:13Z</time>
      </trkpt>
      <trkpt lat="34.967920" lon="-114.562400">
        <ele>186.087</ele>
        <time>2018-12-28T07:09:33Z</time>
      </trkpt>
      <trkpt lat="34.967910" lon="-114.562690">
        <ele>185.322</ele>
        <time>2018-12-28T07:09:53Z</time>
      </trkpt>
      <trkpt lat="34.967910" lon="-114.562870">
        <ele>184.993</ele>
        <time>2018-12-28T07:10:13Z</time>
      </trkpt>
      <trkpt lat="34.967910" lon="-114.563820">
        <ele>183.318</ele>
        <time>2018-12-28T07:10:33Z</time>
      </trkpt>
      <trkpt lat="34.967910" lon="-114.566030">
        <ele>178.839</ele>
        <time>2018-12-28T07:10:53Z</time>
      </trkpt>
      <trkpt lat="34.967920" lon="-114.569500">
        <ele>171.112</ele>
        <time>2018-12-28T07:11:13Z</time>
      </trkpt>
      <trkpt lat="34.967900" lon="-114.570810">
        <ele>168.312</ele>
        <time>2018-12-28T07:11:33Z</time>
      </trkpt>
      <trkpt lat="34.967910" lon="-114.571420">
        <ele>167.266</ele>
        <time>2018-12-28T07:11:53Z</time>
      </trkpt>
      <trkpt lat="34.967910" lon="-114.571810">
        <ele>166.729</ele>
        <time>2018-12-28T07:12:13Z</time>
      </trkpt>
      <trkpt lat="34.967910" lon="-114.572440">
        <ele>166.121</ele>
        <time>2018-12-28T07:12:33Z</time>
      </trkpt>
      <trkpt lat="34.967920" lon="-114.573110">
        <ele>165.208</ele>
        <time>2018-12-28T07:12:53Z</time>
      </trkpt>
      <trkpt lat="34.967920" lon="-114.574830">
        <ele>164.019</ele>
        <time>2018-12-28T07:13:13Z</time>
      </trkpt>
      <trkpt lat="34.967920" lon="-114.576060">
        <ele>161.847</ele>
        <time>2018-12-28T07:13:33Z</time>
      </trkpt>
      <trkpt lat="34.967930" lon="-114.577210">
        <ele>163.452</ele>
        <time>2018-12-28T07:13:53Z</time>
      </trkpt>
      <trkpt lat="34.967930" lon="-114.578060">
        <ele>159.223</ele>
        <time>2018-12-28T07:14:13Z</time>
      </trkpt>
      <trkpt lat="34.967930" lon="-114.579300">
        <ele>153.048</ele>
        <time>2018-12-28T07:14:33Z</time>
      </trkpt>
      <trkpt lat="34.967920" lon="-114.580260">
        <ele>153.529</ele>
        <time>2018-12-28T07:14:53Z</time>
      </trkpt>
      <trkpt lat="34.967920" lon="-114.580970">
        <ele>154.072</ele>
        <time>2018-12-28T07:15:13Z</time>
      </trkpt>
      <trkpt lat="34.967910" lon="-114.581690">
        <ele>150.532</ele>
        <time>2018-12-28T07:15:33Z</time>
      </trkpt>
      <trkpt lat="34.967930" lon="-114.582210">
        <ele>149.338</ele>
        <time>2018-12-28T07:15:53Z</time>
      </trkpt>
      <trkpt lat="34.967940" lon="-114.582480">
        <ele>148.970</ele>
        <time>2018-12-28T07:16:13Z</time>
      </trkpt>
      <trkpt lat="34.967950" lon="-114.582660">
        <ele>148.917</ele>
        <time>2018-12-28T07:16:33Z</time>
      </trkpt>
      <trkpt lat="34.967970" lon="-114.583150">
        <ele>149.408</ele>
        <time>2018-12-28T07:16:53Z</time>
      </trkpt>
      <trkpt lat="34.967980" lon="-114.583450">
        <ele>149.596</ele>
        <time>2018-12-28T07:17:13Z</time>
      </trkpt>
      <trkpt lat="34.967990" lon="-114.583800">
        <ele>149.484</ele>
        <time>2018-12-28T07:17:33Z</time>
      </trkpt>
      <trkpt lat="34.967980" lon="-114.584610">
        <ele>147.429</ele>
        <time>2018-12-28T07:17:53Z</time>
      </trkpt>
      <trkpt lat="34.967960" lon="-114.586350">
        <ele>146.290</ele>
        <time>2018-12-28T07:18:13Z</time>
      </trkpt>
      <trkpt lat="34.967950" lon="-114.587320">
        <ele>145.885</ele>
        <time>2018-12-28T07:18:33Z</time>
      </trkpt>
      <trkpt lat="34.967950" lon="-114.589320">
        <ele>145.746</ele>
        <time>2018-12-28T07:18:53Z</time>
      </trkpt>
      <trkpt lat="34.967940" lon="-114.591870">
        <ele>145.579</ele>
        <time>2018-12-28T07:19:13Z</time>
      </trkpt>
      <trkpt lat="34.967930" lon="-114.595340">
        <ele>145.929</ele>
        <time>2018-12-28T07:19:33Z</time>
      </trkpt>
      <trkpt lat="34.967920" lon="-114.596240">
        <ele>146.088</ele>
        <time>2018-12-28T07:19:53Z</time>
      </trkpt>
      <trkpt lat="34.967910" lon="-114.597000">
        <ele>146.124</ele>
        <time>2018-12-28T07:20:13Z</time>
      </trkpt>
      <trkpt lat="34.967910" lon="-114.597460">
        <ele>146.126</ele>
        <time>2018-12-28T07:20:33Z</time>
      </trkpt>
      <trkpt lat="34.967910" lon="-114.597530">
        <ele>146.108</ele>
        <time>2018-12-28T07:20:53Z</time>
      </trkpt>
      <trkpt lat="34.967910" lon="-114.597960">
        <ele>146.171</ele>
        <time>2018-12-28T07:21:13Z</time>
      </trkpt>
      <trkpt lat="34.967911" lon="-114.597960">
        <ele>146.159</ele>
        <time>2018-12-28T07:21:33Z</time>
      </trkpt>
      <trkpt lat="34.967010" lon="-114.597960">
        <ele>145.884</ele>
        <time>2018-12-28T07:21:53Z</time>
      </trkpt>
      <trkpt lat="34.966330" lon="-114.597960">
        <ele>145.635</ele>
        <time>2018-12-28T07:22:13Z</time>
      </trkpt>
      <trkpt lat="34.965660" lon="-114.597960">
        <ele>145.710</ele>
        <time>2018-12-28T07:22:33Z</time>
      </trkpt>
      <trkpt lat="34.965490" lon="-114.597960">
        <ele>145.751</ele>
        <time>2018-12-28T07:22:53Z</time>
      </trkpt>
      <trkpt lat="34.963970" lon="-114.597960">
        <ele>145.924</ele>
        <time>2018-12-28T07:23:13Z</time>
      </trkpt>
      <trkpt lat="34.963300" lon="-114.597960">
        <ele>145.894</ele>
        <time>2018-12-28T07:23:33Z</time>
      </trkpt>
      <trkpt lat="34.962200" lon="-114.597960">
        <ele>145.777</ele>
        <time>2018-12-28T07:23:53Z</time>
      </trkpt>
      <trkpt lat="34.961670" lon="-114.597960">
        <ele>145.761</ele>
        <time>2018-12-28T07:24:13Z</time>
      </trkpt>
      <trkpt lat="34.960870" lon="-114.597950">
        <ele>145.927</ele>
        <time>2018-12-28T07:24:33Z</time>
      </trkpt>
      <trkpt lat="34.960740" lon="-114.597950">
        <ele>146.008</ele>
        <time>2018-12-28T07:24:53Z</time>
      </trkpt>
      <trkpt lat="34.960330" lon="-114.597950">
        <ele>146.210</ele>
        <time>2018-12-28T07:25:13Z</time>
      </trkpt>
      <trkpt lat="34.960130" lon="-114.597950">
        <ele>146.378</ele>
        <time>2018-12-28T07:25:33Z</time>
      </trkpt>
      <trkpt lat="34.956920" lon="-114.597950">
        <ele>146.083</ele>
        <time>2018-12-28T07:25:53Z</time>
      </trkpt>
      <trkpt lat="34.956310" lon="-114.597950">
        <ele>145.974</ele>
        <time>2018-12-28T07:26:13Z</time>
      </trkpt>
      <trkpt lat="34.955030" lon="-114.597950">
        <ele>145.749</ele>
        <time>2018-12-28T07:26:33Z</time>
      </trkpt>
      <trkpt lat="34.954320" lon="-114.597940">
        <ele>145.760</ele>
        <time>2018-12-28T07:26:53Z</time>
      </trkpt>
      <trkpt lat="34.953990" lon="-114.597940">
        <ele>145.793</ele>
        <time>2018-12-28T07:27:13Z</time>
      </trkpt>
      <trkpt lat="34.953440" lon="-114.597940">
        <ele>145.753</ele>
        <time>2018-12-28T07:27:33Z</time>
      </trkpt>
      <trkpt lat="34.953350" lon="-114.598000">
        <ele>145.794</ele>
        <time>2018-12-28T07:27:53Z</time>
      </trkpt>
      <trkpt lat="34.952850" lon="-114.598000">
        <ele>145.757</ele>
        <time>2018-12-28T07:28:13Z</time>
      </trkpt>
      <trkpt lat="34.952310" lon="-114.598000">
        <ele>145.722</ele>
        <time>2018-12-28T07:28:33Z</time>
      </trkpt>
      <trkpt lat="34.951730" lon="-114.597990">
        <ele>145.908</ele>
        <time>2018-12-28T07:28:53Z</time>
      </trkpt>
      <trkpt lat="34.951470" lon="-114.597990">
        <ele>146.012</ele>
        <time>2018-12-28T07:29:13Z</time>
      </trkpt>
      <trkpt lat="34.951430" lon="-114.597990">
        <ele>146.090</ele>
        <time>2018-12-28T07:29:33Z</time>
      </trkpt>
      <trkpt lat="34.951420" lon="-114.597980">
        <ele>146.035</ele>
        <time>2018-12-28T07:29:53Z</time>
      </trkpt>
      <trkpt lat="34.951400" lon="-114.597980">
        <ele>146.046</ele>
        <time>2018-12-28T07:30:13Z</time>
      </trkpt>
      <trkpt lat="34.951380" lon="-114.597980">
        <ele>146.091</ele>
        <time>2018-12-28T07:30:33Z</time>
      </trkpt>
      <trkpt lat="34.951360" lon="-114.597970">
        <ele>146.162</ele>
        <time>2018-12-28T07:30:53Z</time>
      </trkpt>
      <trkpt lat="34.951340" lon="-114.597970">
        <ele>146.185</ele>
        <time>2018-12-28T07:31:13Z</time>
      </trkpt>
      <trkpt lat="34.951280" lon="-114.597940">
        <ele>146.135</ele>
        <time>2018-12-28T07:31:33Z</time>
      </trkpt>
      <trkpt lat="34.950840" lon="-114.597940">
        <ele>146.371</ele>
        <time>2018-12-28T07:31:53Z</time>
      </trkpt>
      <trkpt lat="34.947860" lon="-114.597950">
        <ele>146.941</ele>
        <time>2018-12-28T07:32:13Z</time>
      </trkpt>
      <trkpt lat="34.938860" lon="-114.597940">
        <ele>146.715</ele>
        <time>2018-12-28T07:32:33Z</time>
      </trkpt>
      <trkpt lat="34.938810" lon="-114.597950">
        <ele>146.708</ele>
        <time>2018-12-28T07:32:53Z</time>
      </trkpt>
      <trkpt lat="34.938680" lon="-114.597950">
        <ele>146.720</ele>
        <time>2018-12-28T07:33:13Z</time>
      </trkpt>
      <trkpt lat="34.935700" lon="-114.597920">
        <ele>146.628</ele>
        <time>2018-12-28T07:33:33Z</time>
      </trkpt>
      <trkpt lat="34.934380" lon="-114.597910">
        <ele>144.063</ele>
        <time>2018-12-28T07:33:53Z</time>
      </trkpt>
      <trkpt lat="34.933670" lon="-114.597900">
        <ele>144.854</ele>
        <time>2018-12-28T07:34:13Z</time>
      </trkpt>
      <trkpt lat="34.933540" lon="-114.597940">
        <ele>144.839</ele>
        <time>2018-12-28T07:34:33Z</time>
      </trkpt>
      <trkpt lat="34.932660" lon="-114.597950">
        <ele>144.330</ele>
        <time>2018-12-28T07:34:53Z</time>
      </trkpt>
      <trkpt lat="34.932290" lon="-114.597950">
        <ele>143.753</ele>
        <time>2018-12-28T07:35:13Z</time>
      </trkpt>
      <trkpt lat="34.932270" lon="-114.597950">
        <ele>143.723</ele>
        <time>2018-12-28T07:35:33Z</time>
      </trkpt>
      <trkpt lat="34.931550" lon="-114.597940">
        <ele>143.991</ele>
        <time>2018-12-28T07:35:53Z</time>
      </trkpt>
      <trkpt lat="34.930240" lon="-114.597920">
        <ele>144.281</ele>
        <time>2018-12-28T07:36:13Z</time>
      </trkpt>
      <trkpt lat="34.930110" lon="-114.597870">
        <ele>144.219</ele>
        <time>2018-12-28T07:36:33Z</time>
      </trkpt>
      <trkpt lat="34.926660" lon="-114.597850">
        <ele>144.908</ele>
        <time>2018-12-28T07:36:53Z</time>
      </trkpt>
      <trkpt lat="34.926540" lon="-114.597890">
        <ele>145.052</ele>
        <time>2018-12-28T07:37:13Z</time>
      </trkpt>
      <trkpt lat="34.925420" lon="-114.597910">
        <ele>145.210</ele>
        <time>2018-12-28T07:37:33Z</time>
      </trkpt>
      <trkpt lat="34.925030" lon="-114.597900">
        <ele>145.255</ele>
        <time>2018-12-28T07:37:53Z</time>
      </trkpt>
      <trkpt lat="34.924210" lon="-114.597900">
        <ele>145.536</ele>
        <time>2018-12-28T07:38:13Z</time>
      </trkpt>
      <trkpt lat="34.924030" lon="-114.597840">
        <ele>145.551</ele>
        <time>2018-12-28T07:38:33Z</time>
      </trkpt>
      <trkpt lat="34.923550" lon="-114.597830">
        <ele>145.522</ele>
        <time>2018-12-28T07:38:53Z</time>
      </trkpt>
      <trkpt lat="34.923420" lon="-114.597820">
        <ele>145.475</ele>
        <time>2018-12-28T07:39:13Z</time>
      </trkpt>
      <trkpt lat="34.923170" lon="-114.597820">
        <ele>145.235</ele>
        <time>2018-12-28T07:39:33Z</time>
      </trkpt>
      <trkpt lat="34.922450" lon="-114.597810">
        <ele>145.347</ele>
        <time>2018-12-28T07:39:53Z</time>
      </trkpt>
      <trkpt lat="34.920910" lon="-114.597810">
        <ele>145.529</ele>
        <time>2018-12-28T07:40:13Z</time>
      </trkpt>
      <trkpt lat="34.919200" lon="-114.597800">
        <ele>145.621</ele>
        <time>2018-12-28T07:40:33Z</time>
      </trkpt>
      <trkpt lat="34.918610" lon="-114.597800">
        <ele>145.608</ele>
        <time>2018-12-28T07:40:53Z</time>
      </trkpt>
      <trkpt lat="34.914380" lon="-114.597780">
        <ele>145.437</ele>
        <time>2018-12-28T07:41:13Z</time>
      </trkpt>
      <trkpt lat="34.912380" lon="-114.597780">
        <ele>145.695</ele>
        <time>2018-12-28T07:41:33Z</time>
      </trkpt>
      <trkpt lat="34.911470" lon="-114.597780">
        <ele>145.710</ele>
        <time>2018-12-28T07:41:53Z</time>
      </trkpt>
      <trkpt lat="34.910710" lon="-114.597780">
        <ele>145.731</ele>
        <time>2018-12-28T07:42:13Z</time>
      </trkpt>
      <trkpt lat="34.910450" lon="-114.597790">
        <ele>145.836</ele>
        <time>2018-12-28T07:42:33Z</time>
      </trkpt>
      <trkpt lat="34.909700" lon="-114.597780">
        <ele>145.727</ele>
        <time>2018-12-28T07:42:53Z</time>
      </trkpt>
      <trkpt lat="34.909510" lon="-114.597780">
        <ele>145.820</ele>
        <time>2018-12-28T07:43:13Z</time>
      </trkpt>
      <trkpt lat="34.909330" lon="-114.597790">
        <ele>145.950</ele>
        <time>2018-12-28T07:43:33Z</time>
      </trkpt>
      <trkpt lat="34.909000" lon="-114.597800">
        <ele>146.052</ele>
        <time>2018-12-28T07:43:53Z</time>
      </trkpt>
      <trkpt lat="34.908630" lon="-114.597820">
        <ele>146.053</ele>
        <time>2018-12-28T07:44:13Z</time>
      </trkpt>
      <trkpt lat="34.908220" lon="-114.597840">
        <ele>146.108</ele>
        <time>2018-12-28T07:44:33Z</time>
      </trkpt>
      <trkpt lat="34.907870" lon="-114.597850">
        <ele>145.908</ele>
        <time>2018-12-28T07:44:53Z</time>
      </trkpt>
      <trkpt lat="34.907440" lon="-114.597870">
        <ele>145.818</ele>
        <time>2018-12-28T07:45:13Z</time>
      </trkpt>
      <trkpt lat="34.907070" lon="-114.597880">
        <ele>145.986</ele>
        <time>2018-12-28T07:45:33Z</time>
      </trkpt>
      <trkpt lat="34.906670" lon="-114.597890">
        <ele>145.951</ele>
        <time>2018-12-28T07:45:53Z</time>
      </trkpt>
      <trkpt lat="34.906070" lon="-114.597890">
        <ele>145.892</ele>
        <time>2018-12-28T07:46:13Z</time>
      </trkpt>
      <trkpt lat="34.902430" lon="-114.597890">
        <ele>145.777</ele>
        <time>2018-12-28T07:46:33Z</time>
      </trkpt>
      <trkpt lat="34.902060" lon="-114.597890">
        <ele>145.718</ele>
        <time>2018-12-28T07:46:53Z</time>
      </trkpt>
      <trkpt lat="34.900600" lon="-114.597890">
        <ele>145.651</ele>
        <time>2018-12-28T07:47:13Z</time>
      </trkpt>
      <trkpt lat="34.898810" lon="-114.597890">
        <ele>145.571</ele>
        <time>2018-12-28T07:47:33Z</time>
      </trkpt>
      <trkpt lat="34.896980" lon="-114.597890">
        <ele>145.322</ele>
        <time>2018-12-28T07:47:53Z</time>
      </trkpt>
      <trkpt lat="34.896780" lon="-114.597890">
        <ele>145.362</ele>
        <time>2018-12-28T07:48:13Z</time>
      </trkpt>
      <trkpt lat="34.896170" lon="-114.597880">
        <ele>145.108</ele>
        <time>2018-12-28T07:48:33Z</time>
      </trkpt>
      <trkpt lat="34.895830" lon="-114.597880">
        <ele>145.108</ele>
        <time>2018-12-28T07:48:53Z</time>
      </trkpt>
      <trkpt lat="34.895330" lon="-114.597880">
        <ele>145.045</ele>
        <time>2018-12-28T07:49:13Z</time>
      </trkpt>
      <trkpt lat="34.895250" lon="-114.597930">
        <ele>145.013</ele>
        <time>2018-12-28T07:49:33Z</time>
      </trkpt>
      <trkpt lat="34.895160" lon="-114.597940">
        <ele>145.088</ele>
        <time>2018-12-28T07:49:53Z</time>
      </trkpt>
      <trkpt lat="34.894230" lon="-114.597890">
        <ele>144.759</ele>
        <time>2018-12-28T07:50:13Z</time>
      </trkpt>
      <trkpt lat="34.893810" lon="-114.597870">
        <ele>144.794</ele>
        <time>2018-12-28T07:50:33Z</time>
      </trkpt>
      <trkpt lat="34.893050" lon="-114.597820">
        <ele>144.585</ele>
        <time>2018-12-28T07:50:53Z</time>
      </trkpt>
      <trkpt lat="34.892930" lon="-114.597780">
        <ele>144.448</ele>
        <time>2018-12-28T07:51:13Z</time>
      </trkpt>
      <trkpt lat="34.892780" lon="-114.597780">
        <ele>144.468</ele>
        <time>2018-12-28T07:51:33Z</time>
      </trkpt>
      <trkpt lat="34.892370" lon="-114.597780">
        <ele>144.358</ele>
        <time>2018-12-28T07:51:53Z</time>
      </trkpt>
      <trkpt lat="34.890560" lon="-114.597780">
        <ele>143.952</ele>
        <time>2018-12-28T07:52:13Z</time>
      </trkpt>
      <trkpt lat="34.886830" lon="-114.597780">
        <ele>143.317</ele>
        <time>2018-12-28T07:52:33Z</time>
      </trkpt>
      <trkpt lat="34.885200" lon="-114.597780">
        <ele>142.608</ele>
        <time>2018-12-28T07:52:53Z</time>
      </trkpt>
      <trkpt lat="34.880830" lon="-114.597780">
        <ele>143.328</ele>
        <time>2018-12-28T07:53:13Z</time>
      </trkpt>
      <trkpt lat="34.880590" lon="-114.597780">
        <ele>143.346</ele>
        <time>2018-12-28T07:53:33Z</time>
      </trkpt>
      <trkpt lat="34.875000" lon="-114.597780">
        <ele>143.171</ele>
        <time>2018-12-28T07:53:53Z</time>
      </trkpt>
      <trkpt lat="34.873960" lon="-114.597790">
        <ele>143.862</ele>
        <time>2018-12-28T07:54:13Z</time>
      </trkpt>
      <trkpt lat="34.872000" lon="-114.597780">
        <ele>144.027</ele>
        <time>2018-12-28T07:54:33Z</time>
      </trkpt>
      <trkpt lat="34.871800" lon="-114.597780">
        <ele>143.968</ele>
        <time>2018-12-28T07:54:53Z</time>
      </trkpt>
      <trkpt lat="34.870210" lon="-114.597780">
        <ele>143.941</ele>
        <time>2018-12-28T07:55:13Z</time>
      </trkpt>
      <trkpt lat="34.868980" lon="-114.597780">
        <ele>143.921</ele>
        <time>2018-12-28T07:55:33Z</time>
      </trkpt>
      <trkpt lat="34.868320" lon="-114.597770">
        <ele>143.991</ele>
        <time>2018-12-28T07:55:53Z</time>
      </trkpt>
      <trkpt lat="34.867710" lon="-114.597760">
        <ele>143.981</ele>
        <time>2018-12-28T07:56:13Z</time>
      </trkpt>
      <trkpt lat="34.866190" lon="-114.597750">
        <ele>143.919</ele>
        <time>2018-12-28T07:56:33Z</time>
      </trkpt>
      <trkpt lat="34.865570" lon="-114.597750">
        <ele>143.908</ele>
        <time>2018-12-28T07:56:53Z</time>
      </trkpt>
      <trkpt lat="34.865390" lon="-114.597750">
        <ele>143.832</ele>
        <time>2018-12-28T07:57:13Z</time>
      </trkpt>
      <trkpt lat="34.865210" lon="-114.597770">
        <ele>143.830</ele>
        <time>2018-12-28T07:57:33Z</time>
      </trkpt>
      <trkpt lat="34.865070" lon="-114.597800">
        <ele>143.715</ele>
        <time>2018-12-28T07:57:53Z</time>
      </trkpt>
      <trkpt lat="34.864970" lon="-114.597840">
        <ele>143.716</ele>
        <time>2018-12-28T07:58:13Z</time>
      </trkpt>
      <trkpt lat="34.864820" lon="-114.597910">
        <ele>143.611</ele>
        <time>2018-12-28T07:58:33Z</time>
      </trkpt>
      <trkpt lat="34.864710" lon="-114.597980">
        <ele>143.622</ele>
        <time>2018-12-28T07:58:53Z</time>
      </trkpt>
      <trkpt lat="34.864620" lon="-114.598060">
        <ele>143.635</ele>
        <time>2018-12-28T07:59:13Z</time>
      </trkpt>
      <trkpt lat="34.864570" lon="-114.598110">
        <ele>143.545</ele>
        <time>2018-12-28T07:59:33Z</time>
      </trkpt>
      <trkpt lat="34.864500" lon="-114.598180">
        <ele>143.557</ele>
        <time>2018-12-28T07:59:53Z</time>
      </trkpt>
      <trkpt lat="34.864420" lon="-114.598270">
        <ele>143.500</ele>
        <time>2018-12-28T08:00:13Z</time>
      </trkpt>
      <trkpt lat="34.864390" lon="-114.598300">
        <ele>143.520</ele>
        <time>2018-12-28T08:00:33Z</time>
      </trkpt>
      <trkpt lat="34.864280" lon="-114.598460">
        <ele>143.508</ele>
        <time>2018-12-28T08:00:53Z</time>
      </trkpt>
      <trkpt lat="34.864200" lon="-114.598600">
        <ele>143.598</ele>
        <time>2018-12-28T08:01:13Z</time>
      </trkpt>
      <trkpt lat="34.864120" lon="-114.598780">
        <ele>143.556</ele>
        <time>2018-12-28T08:01:33Z</time>
      </trkpt>
      <trkpt lat="34.864020" lon="-114.599010">
        <ele>143.551</ele>
        <time>2018-12-28T08:01:53Z</time>
      </trkpt>
      <trkpt lat="34.863860" lon="-114.599400">
        <ele>143.522</ele>
        <time>2018-12-28T08:02:13Z</time>
      </trkpt>
      <trkpt lat="34.863630" lon="-114.600000">
        <ele>143.587</ele>
        <time>2018-12-28T08:02:33Z</time>
      </trkpt>
      <trkpt lat="34.863450" lon="-114.600410">
        <ele>143.568</ele>
        <time>2018-12-28T08:02:53Z</time>
      </trkpt>
      <trkpt lat="34.863370" lon="-114.600590">
        <ele>143.651</ele>
        <time>2018-12-28T08:03:13Z</time>
      </trkpt>
      <trkpt lat="34.863170" lon="-114.600960">
        <ele>143.661</ele>
        <time>2018-12-28T08:03:33Z</time>
      </trkpt>
      <trkpt lat="34.863070" lon="-114.601130">
        <ele>143.673</ele>
        <time>2018-12-28T08:03:53Z</time>
      </trkpt>
      <trkpt lat="34.862810" lon="-114.601490">
        <ele>143.685</ele>
        <time>2018-12-28T08:04:13Z</time>
      </trkpt>
      <trkpt lat="34.862710" lon="-114.601620">
        <ele>143.613</ele>
        <time>2018-12-28T08:04:33Z</time>
      </trkpt>
      <trkpt lat="34.862610" lon="-114.601750">
        <ele>143.508</ele>
        <time>2018-12-28T08:04:53Z</time>
      </trkpt>
      <trkpt lat="34.862520" lon="-114.601850">
        <ele>143.510</ele>
        <time>2018-12-28T08:05:13Z</time>
      </trkpt>
      <trkpt lat="34.862380" lon="-114.602010">
        <ele>143.578</ele>
        <time>2018-12-28T08:05:33Z</time>
      </trkpt>
      <trkpt lat="34.862250" lon="-114.602150">
        <ele>143.573</ele>
        <time>2018-12-28T08:05:53Z</time>
      </trkpt>
      <trkpt lat="34.862160" lon="-114.602230">
        <ele>143.534</ele>
        <time>2018-12-28T08:06:13Z</time>
      </trkpt>
      <trkpt lat="34.861870" lon="-114.602490">
        <ele>143.489</ele>
        <time>2018-12-28T08:06:33Z</time>
      </trkpt>
      <trkpt lat="34.861500" lon="-114.602790">
        <ele>143.430</ele>
        <time>2018-12-28T08:06:53Z</time>
      </trkpt>
      <trkpt lat="34.861000" lon="-114.603210">
        <ele>143.563</ele>
        <time>2018-12-28T08:07:13Z</time>
      </trkpt>
      <trkpt lat="34.860950" lon="-114.603250">
        <ele>143.563</ele>
        <time>2018-12-28T08:07:33Z</time>
      </trkpt>
      <trkpt lat="34.860860" lon="-114.603320">
        <ele>143.536</ele>
        <time>2018-12-28T08:07:53Z</time>
      </trkpt>
      <trkpt lat="34.860730" lon="-114.603410">
        <ele>143.517</ele>
        <time>2018-12-28T08:08:13Z</time>
      </trkpt>
      <trkpt lat="34.860560" lon="-114.603530">
        <ele>143.518</ele>
        <time>2018-12-28T08:08:33Z</time>
      </trkpt>
      <trkpt lat="34.860470" lon="-114.603580">
        <ele>143.508</ele>
        <time>2018-12-28T08:08:53Z</time>
      </trkpt>
      <trkpt lat="34.860350" lon="-114.603640">
        <ele>143.536</ele>
        <time>2018-12-28T08:09:13Z</time>
      </trkpt>
      <trkpt lat="34.860130" lon="-114.603740">
        <ele>143.594</ele>
        <time>2018-12-28T08:09:33Z</time>
      </trkpt>
      <trkpt lat="34.859990" lon="-114.603790">
        <ele>143.599</ele>
        <time>2018-12-28T08:09:53Z</time>
      </trkpt>
      <trkpt lat="34.859840" lon="-114.603840">
        <ele>143.520</ele>
        <time>2018-12-28T08:10:13Z</time>
      </trkpt>
      <trkpt lat="34.859530" lon="-114.603940">
        <ele>143.685</ele>
        <time>2018-12-28T08:10:33Z</time>
      </trkpt>
      <trkpt lat="34.858910" lon="-114.604150">
        <ele>143.746</ele>
        <time>2018-12-28T08:10:53Z</time>
      </trkpt>
      <trkpt lat="34.858710" lon="-114.604230">
        <ele>143.789</ele>
        <time>2018-12-28T08:11:13Z</time>
      </trkpt>
      <trkpt lat="34.858550" lon="-114.604310">
        <ele>143.799</ele>
        <time>2018-12-28T08:11:33Z</time>
      </trkpt>
      <trkpt lat="34.858430" lon="-114.604380">
        <ele>143.772</ele>
        <time>2018-12-28T08:11:53Z</time>
      </trkpt>
      <trkpt lat="34.858250" lon="-114.604500">
        <ele>143.713</ele>
        <time>2018-12-28T08:12:13Z</time>
      </trkpt>
      <trkpt lat="34.858060" lon="-114.604630">
        <ele>143.714</ele>
        <time>2018-12-28T08:12:33Z</time>
      </trkpt>
      <trkpt lat="34.857720" lon="-114.604890">
        <ele>143.708</ele>
        <time>2018-12-28T08:12:53Z</time>
      </trkpt>
      <trkpt lat="34.857140" lon="-114.605310">
        <ele>143.780</ele>
        <time>2018-12-28T08:13:13Z</time>
      </trkpt>
      <trkpt lat="34.856860" lon="-114.605510">
        <ele>143.748</ele>
        <time>2018-12-28T08:13:33Z</time>
      </trkpt>
      <trkpt lat="34.855390" lon="-114.606540">
        <ele>144.023</ele>
        <time>2018-12-28T08:13:53Z</time>
      </trkpt>
      <trkpt lat="34.855090" lon="-114.606760">
        <ele>144.234</ele>
        <time>2018-12-28T08:14:13Z</time>
      </trkpt>
      <trkpt lat="34.854340" lon="-114.607290">
        <ele>144.719</ele>
        <time>2018-12-28T08:14:33Z</time>
      </trkpt>
      <trkpt lat="34.853320" lon="-114.607980">
        <ele>146.790</ele>
        <time>2018-12-28T08:14:53Z</time>
      </trkpt>
      <trkpt lat="34.851040" lon="-114.609490">
        <ele>140.823</ele>
        <time>2018-12-28T08:15:13Z</time>
      </trkpt>
      <trkpt lat="34.850600" lon="-114.609780">
        <ele>146.673</ele>
        <time>2018-12-28T08:15:33Z</time>
      </trkpt>
      <trkpt lat="34.850440" lon="-114.609890">
        <ele>146.932</ele>
        <time>2018-12-28T08:15:53Z</time>
      </trkpt>
      <trkpt lat="34.850240" lon="-114.610030">
        <ele>146.892</ele>
        <time>2018-12-28T08:16:13Z</time>
      </trkpt>
      <trkpt lat="34.850100" lon="-114.610120">
        <ele>146.711</ele>
        <time>2018-12-28T08:16:33Z</time>
      </trkpt>
      <trkpt lat="34.849950" lon="-114.610200">
        <ele>146.608</ele>
        <time>2018-12-28T08:16:53Z</time>
      </trkpt>
      <trkpt lat="34.849870" lon="-114.610240">
        <ele>146.516</ele>
        <time>2018-12-28T08:17:13Z</time>
      </trkpt>
      <trkpt lat="34.849750" lon="-114.610290">
        <ele>146.574</ele>
        <time>2018-12-28T08:17:33Z</time>
      </trkpt>
      <trkpt lat="34.849650" lon="-114.610320">
        <ele>146.469</ele>
        <time>2018-12-28T08:17:53Z</time>
      </trkpt>
      <trkpt lat="34.849550" lon="-114.610350">
        <ele>146.430</ele>
        <time>2018-12-28T08:18:13Z</time>
      </trkpt>
      <trkpt lat="34.849430" lon="-114.610380">
        <ele>146.495</ele>
        <time>2018-12-28T08:18:33Z</time>
      </trkpt>
      <trkpt lat="34.849240" lon="-114.610390">
        <ele>146.426</ele>
        <time>2018-12-28T08:18:53Z</time>
      </trkpt>
      <trkpt lat="34.849080" lon="-114.610400">
        <ele>146.479</ele>
        <time>2018-12-28T08:19:13Z</time>
      </trkpt>
      <trkpt lat="34.848430" lon="-114.610400">
        <ele>146.419</ele>
        <time>2018-12-28T08:19:33Z</time>
      </trkpt>
      <trkpt lat="34.848428" lon="-114.610405">
        <ele>146.423</ele>
        <time>2018-12-28T08:19:53Z</time>
      </trkpt>
      <trkpt lat="34.848430" lon="-114.610910">
        <ele>146.783</ele>
        <time>2018-12-28T08:20:13Z</time>
      </trkpt>
      <trkpt lat="34.848430" lon="-114.611320">
        <ele>147.011</ele>
        <time>2018-12-28T08:20:33Z</time>
      </trkpt>
      <trkpt lat="34.848430" lon="-114.611590">
        <ele>147.208</ele>
        <time>2018-12-28T08:20:53Z</time>
      </trkpt>
      <trkpt lat="34.848440" lon="-114.612810">
        <ele>148.755</ele>
        <time>2018-12-28T08:21:13Z</time>
      </trkpt>
      <trkpt lat="34.848440" lon="-114.613740">
        <ele>149.883</ele>
        <time>2018-12-28T08:21:33Z</time>
      </trkpt>
      <trkpt lat="34.848450" lon="-114.614010">
        <ele>150.198</ele>
        <time>2018-12-28T08:21:53Z</time>
      </trkpt>
      <trkpt lat="34.848450" lon="-114.614390">
        <ele>150.799</ele>
        <time>2018-12-28T08:22:13Z</time>
      </trkpt>
      <trkpt lat="34.848450" lon="-114.615230">
        <ele>151.944</ele>
        <time>2018-12-28T08:22:33Z</time>
      </trkpt>
      <trkpt lat="34.848460" lon="-114.616400">
        <ele>152.875</ele>
        <time>2018-12-28T08:22:53Z</time>
      </trkpt>
      <trkpt lat="34.848470" lon="-114.617620">
        <ele>153.428</ele>
        <time>2018-12-28T08:23:13Z</time>
      </trkpt>
      <trkpt lat="34.848470" lon="-114.618830">
        <ele>153.918</ele>
        <time>2018-12-28T08:23:33Z</time>
      </trkpt>
      <trkpt lat="34.848490" lon="-114.619870">
        <ele>153.958</ele>
        <time>2018-12-28T08:23:53Z</time>
      </trkpt>
      <trkpt lat="34.848490" lon="-114.620000">
        <ele>153.952</ele>
        <time>2018-12-28T08:24:13Z</time>
      </trkpt>
      <trkpt lat="34.848490" lon="-114.620010">
        <ele>153.917</ele>
        <time>2018-12-28T08:24:33Z</time>
      </trkpt>
      <trkpt lat="34.848490" lon="-114.620150">
        <ele>154.008</ele>
        <time>2018-12-28T08:24:53Z</time>
      </trkpt>
      <trkpt lat="34.848500" lon="-114.621230">
        <ele>156.698</ele>
        <time>2018-12-28T08:25:13Z</time>
      </trkpt>
      <trkpt lat="34.848500" lon="-114.621350">
        <ele>156.856</ele>
        <time>2018-12-28T08:25:33Z</time>
      </trkpt>
      <trkpt lat="34.848500" lon="-114.621410">
        <ele>156.941</ele>
        <time>2018-12-28T08:25:53Z</time>
      </trkpt>
      <trkpt lat="34.848510" lon="-114.621480">
        <ele>157.032</ele>
        <time>2018-12-28T08:26:13Z</time>
      </trkpt>
      <trkpt lat="34.848510" lon="-114.621520">
        <ele>157.157</ele>
        <time>2018-12-28T08:26:33Z</time>
      </trkpt>
      <trkpt lat="34.848510" lon="-114.621570">
        <ele>157.298</ele>
        <time>2018-12-28T08:26:53Z</time>
      </trkpt>
      <trkpt lat="34.848530" lon="-114.621640">
        <ele>157.461</ele>
        <time>2018-12-28T08:27:13Z</time>
      </trkpt>
      <trkpt lat="34.848570" lon="-114.621730">
        <ele>157.521</ele>
        <time>2018-12-28T08:27:33Z</time>
      </trkpt>
      <trkpt lat="34.848640" lon="-114.621840">
        <ele>157.747</ele>
        <time>2018-12-28T08:27:53Z</time>
      </trkpt>
      <trkpt lat="34.848670" lon="-114.621880">
        <ele>157.729</ele>
        <time>2018-12-28T08:28:13Z</time>
      </trkpt>
      <trkpt lat="34.848700" lon="-114.621930">
        <ele>157.821</ele>
        <time>2018-12-28T08:28:33Z</time>
      </trkpt>
      <trkpt lat="34.848770" lon="-114.621980">
        <ele>157.908</ele>
        <time>2018-12-28T08:28:53Z</time>
      </trkpt>
      <trkpt lat="34.848870" lon="-114.622050">
        <ele>158.097</ele>
        <time>2018-12-28T08:29:13Z</time>
      </trkpt>
      <trkpt lat="34.848980" lon="-114.622110">
        <ele>158.195</ele>
        <time>2018-12-28T08:29:33Z</time>
      </trkpt>
      <trkpt lat="34.849180" lon="-114.622230">
        <ele>158.350</ele>
        <time>2018-12-28T08:29:53Z</time>
      </trkpt>
      <trkpt lat="34.849320" lon="-114.622310">
        <ele>158.471</ele>
        <time>2018-12-28T08:30:13Z</time>
      </trkpt>
      <trkpt lat="34.849880" lon="-114.622640">
        <ele>158.416</ele>
        <time>2018-12-28T08:30:33Z</time>
      </trkpt>
      <trkpt lat="34.850110" lon="-114.622780">
        <ele>158.157</ele>
        <time>2018-12-28T08:30:53Z</time>
      </trkpt>
      <trkpt lat="34.850390" lon="-114.622950">
        <ele>157.580</ele>
        <time>2018-12-28T08:31:13Z</time>
      </trkpt>
      <trkpt lat="34.850600" lon="-114.623090">
        <ele>157.020</ele>
        <time>2018-12-28T08:31:33Z</time>
      </trkpt>
      <trkpt lat="34.850720" lon="-114.623180">
        <ele>156.715</ele>
        <time>2018-12-28T08:31:53Z</time>
      </trkpt>
      <trkpt lat="34.850820" lon="-114.623270">
        <ele>156.465</ele>
        <time>2018-12-28T08:32:13Z</time>
      </trkpt>
      <trkpt lat="34.850910" lon="-114.623370">
        <ele>156.111</ele>
        <time>2018-12-28T08:32:33Z</time>
      </trkpt>
      <trkpt lat="34.850980" lon="-114.623480">
        <ele>156.008</ele>
        <time>2018-12-28T08:32:53Z</time>
      </trkpt>
      <trkpt lat="34.851050" lon="-114.623600">
        <ele>155.854</ele>
        <time>2018-12-28T08:33:13Z</time>
      </trkpt>
      <trkpt lat="34.851060" lon="-114.623620">
        <ele>155.842</ele>
        <time>2018-12-28T08:33:33Z</time>
      </trkpt>
      <trkpt lat="34.851130" lon="-114.623760">
        <ele>155.857</ele>
        <time>2018-12-28T08:33:53Z</time>
      </trkpt>
      <trkpt lat="34.851220" lon="-114.623960">
        <ele>155.938</ele>
        <time>2018-12-28T08:34:13Z</time>
      </trkpt>
      <trkpt lat="34.851270" lon="-114.624090">
        <ele>156.193</ele>
        <time>2018-12-28T08:34:33Z</time>
      </trkpt>
      <trkpt lat="34.851320" lon="-114.624220">
        <ele>156.284</ele>
        <time>2018-12-28T08:34:53Z</time>
      </trkpt>
      <trkpt lat="34.851510" lon="-114.624780">
        <ele>156.757</ele>
        <time>2018-12-28T08:35:13Z</time>
      </trkpt>
      <trkpt lat="34.851620" lon="-114.625090">
        <ele>156.847</ele>
        <time>2018-12-28T08:35:33Z</time>
      </trkpt>
      <trkpt lat="34.851660" lon="-114.625210">
        <ele>156.862</ele>
        <time>2018-12-28T08:35:53Z</time>
      </trkpt>
      <trkpt lat="34.851760" lon="-114.625440">
        <ele>156.883</ele>
        <time>2018-12-28T08:36:13Z</time>
      </trkpt>
      <trkpt lat="34.851850" lon="-114.625600">
        <ele>157.111</ele>
        <time>2018-12-28T08:36:33Z</time>
      </trkpt>
      <trkpt lat="34.851920" lon="-114.625700">
        <ele>157.208</ele>
        <time>2018-12-28T08:36:53Z</time>
      </trkpt>
      <trkpt lat="34.852010" lon="-114.625810">
        <ele>157.349</ele>
        <time>2018-12-28T08:37:13Z</time>
      </trkpt>
      <trkpt lat="34.852020" lon="-114.625830">
        <ele>157.377</ele>
        <time>2018-12-28T08:37:33Z</time>
      </trkpt>
      <trkpt lat="34.852150" lon="-114.625980">
        <ele>157.442</ele>
        <time>2018-12-28T08:37:53Z</time>
      </trkpt>
      <trkpt lat="34.852280" lon="-114.626090">
        <ele>157.663</ele>
        <time>2018-12-28T08:38:13Z</time>
      </trkpt>
      <trkpt lat="34.852410" lon="-114.626190">
        <ele>157.478</ele>
        <time>2018-12-28T08:38:33Z</time>
      </trkpt>
      <trkpt lat="34.852500" lon="-114.626250">
        <ele>157.179</ele>
        <time>2018-12-28T08:38:53Z</time>
      </trkpt>
      <trkpt lat="34.852630" lon="-114.626320">
        <ele>156.332</ele>
        <time>2018-12-28T08:39:13Z</time>
      </trkpt>
      <trkpt lat="34.852710" lon="-114.626350">
        <ele>156.132</ele>
        <time>2018-12-28T08:39:33Z</time>
      </trkpt>
      <trkpt lat="34.852790" lon="-114.626390">
        <ele>156.057</ele>
        <time>2018-12-28T08:39:53Z</time>
      </trkpt>
      <trkpt lat="34.852880" lon="-114.626420">
        <ele>155.800</ele>
        <time>2018-12-28T08:40:13Z</time>
      </trkpt>
      <trkpt lat="34.852950" lon="-114.626430">
        <ele>155.820</ele>
        <time>2018-12-28T08:40:33Z</time>
      </trkpt>
      <trkpt lat="34.853020" lon="-114.626450">
        <ele>155.808</ele>
        <time>2018-12-28T08:40:53Z</time>
      </trkpt>
      <trkpt lat="34.853160" lon="-114.626470">
        <ele>155.998</ele>
        <time>2018-12-28T08:41:13Z</time>
      </trkpt>
      <trkpt lat="34.853320" lon="-114.626490">
        <ele>155.646</ele>
        <time>2018-12-28T08:41:33Z</time>
      </trkpt>
      <trkpt lat="34.853450" lon="-114.626500">
        <ele>155.371</ele>
        <time>2018-12-28T08:41:53Z</time>
      </trkpt>
      <trkpt lat="34.853800" lon="-114.626550">
        <ele>154.652</ele>
        <time>2018-12-28T08:42:13Z</time>
      </trkpt>
      <trkpt lat="34.854150" lon="-114.626590">
        <ele>154.427</ele>
        <time>2018-12-28T08:42:33Z</time>
      </trkpt>
      <trkpt lat="34.854220" lon="-114.626600">
        <ele>154.478</ele>
        <time>2018-12-28T08:42:53Z</time>
      </trkpt>
      <trkpt lat="34.854380" lon="-114.626620">
        <ele>154.531</ele>
        <time>2018-12-28T08:43:13Z</time>
      </trkpt>
      <trkpt lat="34.854390" lon="-114.626620">
        <ele>154.581</ele>
        <time>2018-12-28T08:43:33Z</time>
      </trkpt>
      <trkpt lat="34.854660" lon="-114.626660">
        <ele>154.446</ele>
        <time>2018-12-28T08:43:53Z</time>
      </trkpt>
      <trkpt lat="34.855780" lon="-114.626780">
        <ele>152.288</ele>
        <time>2018-12-28T08:44:13Z</time>
      </trkpt>
      <trkpt lat="34.855781" lon="-114.626782">
        <ele>152.216</ele>
        <time>2018-12-28T08:44:33Z</time>
      </trkpt>
      <trkpt lat="34.855850" lon="-114.626790">
        <ele>152.108</ele>
        <time>2018-12-28T08:44:53Z</time>
      </trkpt>
      <trkpt lat="34.855820" lon="-114.626970">
        <ele>152.547</ele>
        <time>2018-12-28T08:45:13Z</time>
      </trkpt>
      <trkpt lat="34.855790" lon="-114.627330">
        <ele>153.295</ele>
        <time>2018-12-28T08:45:33Z</time>
      </trkpt>
      <trkpt lat="34.855770" lon="-114.627560">
        <ele>153.750</ele>
        <time>2018-12-28T08:45:53Z</time>
      </trkpt>
      <trkpt lat="34.855750" lon="-114.627800">
        <ele>154.111</ele>
        <time>2018-12-28T08:46:13Z</time>
      </trkpt>
      <trkpt lat="34.855740" lon="-114.627980">
        <ele>154.486</ele>
        <time>2018-12-28T08:46:33Z</time>
      </trkpt>
      <trkpt lat="34.855740" lon="-114.628110">
        <ele>154.637</ele>
        <time>2018-12-28T08:46:53Z</time>
      </trkpt>
      <trkpt lat="34.855760" lon="-114.628270">
        <ele>154.910</ele>
        <time>2018-12-28T08:47:13Z</time>
      </trkpt>
      <trkpt lat="34.855770" lon="-114.628400">
        <ele>155.110</ele>
        <time>2018-12-28T08:47:33Z</time>
      </trkpt>
      <trkpt lat="34.855790" lon="-114.628510">
        <ele>155.218</ele>
        <time>2018-12-28T08:47:53Z</time>
      </trkpt>
      <trkpt lat="34.855830" lon="-114.628670">
        <ele>155.498</ele>
        <time>2018-12-28T08:48:13Z</time>
      </trkpt>
      <trkpt lat="34.855880" lon="-114.628800">
        <ele>155.517</ele>
        <time>2018-12-28T08:48:33Z</time>
      </trkpt>
      <trkpt lat="34.855940" lon="-114.628950">
        <ele>155.608</ele>
        <time>2018-12-28T08:48:53Z</time>
      </trkpt>
      <trkpt lat="34.856000" lon="-114.629100">
        <ele>155.654</ele>
        <time>2018-12-28T08:49:13Z</time>
      </trkpt>
      <trkpt lat="34.856100" lon="-114.629290">
        <ele>155.782</ele>
        <time>2018-12-28T08:49:33Z</time>
      </trkpt>
      <trkpt lat="34.856170" lon="-114.629400">
        <ele>155.897</ele>
        <time>2018-12-28T08:49:53Z</time>
      </trkpt>
      <trkpt lat="34.856210" lon="-114.629470">
        <ele>155.978</ele>
        <time>2018-12-28T08:50:13Z</time>
      </trkpt>
      <trkpt lat="34.856260" lon="-114.629540">
        <ele>156.043</ele>
        <time>2018-12-28T08:50:33Z</time>
      </trkpt>
      <trkpt lat="34.856270" lon="-114.629570">
        <ele>156.064</ele>
        <time>2018-12-28T08:50:53Z</time>
      </trkpt>
      <trkpt lat="34.856280" lon="-114.629600">
        <ele>156.047</ele>
        <time>2018-12-28T08:51:13Z</time>
      </trkpt>
      <trkpt lat="34.856300" lon="-114.629650">
        <ele>156.167</ele>
        <time>2018-12-28T08:51:33Z</time>
      </trkpt>
      <trkpt lat="34.856320" lon="-114.629780">
        <ele>156.273</ele>
        <time>2018-12-28T08:51:53Z</time>
      </trkpt>
      <trkpt lat="34.856390" lon="-114.629880">
        <ele>156.385</ele>
        <time>2018-12-28T08:52:13Z</time>
      </trkpt>
      <trkpt lat="34.856630" lon="-114.630220">
        <ele>157.013</ele>
        <time>2018-12-28T08:52:33Z</time>
      </trkpt>
      <trkpt lat="34.856870" lon="-114.630560">
        <ele>158.708</ele>
        <time>2018-12-28T08:52:53Z</time>
      </trkpt>
      <trkpt lat="34.857150" lon="-114.630990">
        <ele>159.140</ele>
        <time>2018-12-28T08:53:13Z</time>
      </trkpt>
      <trkpt lat="34.857240" lon="-114.631120">
        <ele>159.328</ele>
        <time>2018-12-28T08:53:33Z</time>
      </trkpt>
      <trkpt lat="34.858170" lon="-114.632500">
        <ele>160.773</ele>
        <time>2018-12-28T08:53:53Z</time>
      </trkpt>
      <trkpt lat="34.858830" lon="-114.633460">
        <ele>161.774</ele>
        <time>2018-12-28T08:54:13Z</time>
      </trkpt>
      <trkpt lat="34.859270" lon="-114.634100">
        <ele>164.469</ele>
        <time>2018-12-28T08:54:33Z</time>
      </trkpt>
      <trkpt lat="34.859710" lon="-114.634740">
        <ele>162.690</ele>
        <time>2018-12-28T08:54:53Z</time>
      </trkpt>
      <trkpt lat="34.860330" lon="-114.635650">
        <ele>165.223</ele>
        <time>2018-12-28T08:55:13Z</time>
      </trkpt>
      <trkpt lat="34.860670" lon="-114.636130">
        <ele>167.593</ele>
        <time>2018-12-28T08:55:33Z</time>
      </trkpt>
      <trkpt lat="34.861050" lon="-114.636710">
        <ele>166.722</ele>
        <time>2018-12-28T08:55:53Z</time>
      </trkpt>
      <trkpt lat="34.861600" lon="-114.637520">
        <ele>164.262</ele>
        <time>2018-12-28T08:56:13Z</time>
      </trkpt>
      <trkpt lat="34.861930" lon="-114.638000">
        <ele>164.008</ele>
        <time>2018-12-28T08:56:33Z</time>
      </trkpt>
      <trkpt lat="34.862310" lon="-114.638560">
        <ele>164.008</ele>
        <time>2018-12-28T08:56:53Z</time>
      </trkpt>
      <trkpt lat="34.863170" lon="-114.639830">
        <ele>166.585</ele>
        <time>2018-12-28T08:57:13Z</time>
      </trkpt>
      <trkpt lat="34.863540" lon="-114.640350">
        <ele>170.713</ele>
        <time>2018-12-28T08:57:33Z</time>
      </trkpt>
      <trkpt lat="34.865080" lon="-114.642640">
        <ele>171.488</ele>
        <time>2018-12-28T08:57:53Z</time>
      </trkpt>
      <trkpt lat="34.866500" lon="-114.644710">
        <ele>179.189</ele>
        <time>2018-12-28T08:58:13Z</time>
      </trkpt>
      <trkpt lat="34.866760" lon="-114.645080">
        <ele>180.364</ele>
        <time>2018-12-28T08:58:33Z</time>
      </trkpt>
      <trkpt lat="34.868970" lon="-114.648350">
        <ele>185.455</ele>
        <time>2018-12-28T08:58:53Z</time>
      </trkpt>
      <trkpt lat="34.869780" lon="-114.649570">
        <ele>186.328</ele>
        <time>2018-12-28T08:59:13Z</time>
      </trkpt>
      <trkpt lat="34.870190" lon="-114.650170">
        <ele>186.878</ele>
        <time>2018-12-28T08:59:33Z</time>
      </trkpt>
      <trkpt lat="34.870850" lon="-114.651150">
        <ele>190.366</ele>
        <time>2018-12-28T08:59:53Z</time>
      </trkpt>
      <trkpt lat="34.871280" lon="-114.651770">
        <ele>194.329</ele>
        <time>2018-12-28T09:00:13Z</time>
      </trkpt>
      <trkpt lat="34.871540" lon="-114.652160">
        <ele>196.221</ele>
        <time>2018-12-28T09:00:33Z</time>
      </trkpt>
      <trkpt lat="34.871620" lon="-114.652290">
        <ele>195.208</ele>
        <time>2018-12-28T09:00:53Z</time>
      </trkpt>
      <trkpt lat="34.872090" lon="-114.653000">
        <ele>193.579</ele>
        <time>2018-12-28T09:01:13Z</time>
      </trkpt>
      <trkpt lat="34.872920" lon="-114.654210">
        <ele>196.067</ele>
        <time>2018-12-28T09:01:33Z</time>
      </trkpt>
      <trkpt lat="34.873320" lon="-114.654800">
        <ele>196.782</ele>
        <time>2018-12-28T09:01:53Z</time>
      </trkpt>
      <trkpt lat="34.873860" lon="-114.655620">
        <ele>198.473</ele>
        <time>2018-12-28T09:02:13Z</time>
      </trkpt>
      <trkpt lat="34.873970" lon="-114.655790">
        <ele>198.898</ele>
        <time>2018-12-28T09:02:33Z</time>
      </trkpt>
      <trkpt lat="34.874350" lon="-114.656360">
        <ele>200.489</ele>
        <time>2018-12-28T09:02:53Z</time>
      </trkpt>
      <trkpt lat="34.874600" lon="-114.656710">
        <ele>201.442</ele>
        <time>2018-12-28T09:03:13Z</time>
      </trkpt>
      <trkpt lat="34.874780" lon="-114.656990">
        <ele>201.912</ele>
        <time>2018-12-28T09:03:33Z</time>
      </trkpt>
      <trkpt lat="34.875020" lon="-114.657330">
        <ele>202.126</ele>
        <time>2018-12-28T09:03:53Z</time>
      </trkpt>
      <trkpt lat="34.875200" lon="-114.657600">
        <ele>202.347</ele>
        <time>2018-12-28T09:04:13Z</time>
      </trkpt>
      <trkpt lat="34.875500" lon="-114.658050">
        <ele>203.611</ele>
        <time>2018-12-28T09:04:33Z</time>
      </trkpt>
      <trkpt lat="34.875700" lon="-114.658350">
        <ele>205.008</ele>
        <time>2018-12-28T09:04:53Z</time>
      </trkpt>
      <trkpt lat="34.876260" lon="-114.659190">
        <ele>207.485</ele>
        <time>2018-12-28T09:05:13Z</time>
      </trkpt>
      <trkpt lat="34.876540" lon="-114.659600">
        <ele>207.293</ele>
        <time>2018-12-28T09:05:33Z</time>
      </trkpt>
      <trkpt lat="34.877000" lon="-114.660280">
        <ele>207.418</ele>
        <time>2018-12-28T09:05:53Z</time>
      </trkpt>
      <trkpt lat="34.877130" lon="-114.660480">
        <ele>207.719</ele>
        <time>2018-12-28T09:06:13Z</time>
      </trkpt>
      <trkpt lat="34.877260" lon="-114.660670">
        <ele>208.234</ele>
        <time>2018-12-28T09:06:33Z</time>
      </trkpt>
      <trkpt lat="34.877560" lon="-114.661110">
        <ele>212.385</ele>
        <time>2018-12-28T09:06:53Z</time>
      </trkpt>
      <trkpt lat="34.878360" lon="-114.662310">
        <ele>213.738</ele>
        <time>2018-12-28T09:07:13Z</time>
      </trkpt>
      <trkpt lat="34.879240" lon="-114.663610">
        <ele>217.188</ele>
        <time>2018-12-28T09:07:33Z</time>
      </trkpt>
      <trkpt lat="34.879370" lon="-114.663810">
        <ele>218.593</ele>
        <time>2018-12-28T09:07:53Z</time>
      </trkpt>
      <trkpt lat="34.879500" lon="-114.664010">
        <ele>219.665</ele>
        <time>2018-12-28T09:08:13Z</time>
      </trkpt>
      <trkpt lat="34.879740" lon="-114.664370">
        <ele>219.921</ele>
        <time>2018-12-28T09:08:33Z</time>
      </trkpt>
      <trkpt lat="34.880080" lon="-114.664880">
        <ele>220.108</ele>
        <time>2018-12-28T09:08:53Z</time>
      </trkpt>
      <trkpt lat="34.880340" lon="-114.665270">
        <ele>220.512</ele>
        <time>2018-12-28T09:09:13Z</time>
      </trkpt>
      <trkpt lat="34.880530" lon="-114.665580">
        <ele>221.040</ele>
        <time>2018-12-28T09:09:33Z</time>
      </trkpt>
      <trkpt lat="34.880720" lon="-114.665880">
        <ele>222.085</ele>
        <time>2018-12-28T09:09:53Z</time>
      </trkpt>
      <trkpt lat="34.880990" lon="-114.666330">
        <ele>224.096</ele>
        <time>2018-12-28T09:10:13Z</time>
      </trkpt>
      <trkpt lat="34.881070" lon="-114.666460">
        <ele>224.651</ele>
        <time>2018-12-28T09:10:33Z</time>
      </trkpt>
      <trkpt lat="34.881290" lon="-114.666840">
        <ele>225.922</ele>
        <time>2018-12-28T09:10:53Z</time>
      </trkpt>
      <trkpt lat="34.881800" lon="-114.667760">
        <ele>226.315</ele>
        <time>2018-12-28T09:11:13Z</time>
      </trkpt>
      <trkpt lat="34.881930" lon="-114.668030">
        <ele>227.155</ele>
        <time>2018-12-28T09:11:33Z</time>
      </trkpt>
      <trkpt lat="34.882360" lon="-114.668860">
        <ele>231.217</ele>
        <time>2018-12-28T09:11:53Z</time>
      </trkpt>
      <trkpt lat="34.882480" lon="-114.669110">
        <ele>232.287</ele>
        <time>2018-12-28T09:12:13Z</time>
      </trkpt>
      <trkpt lat="34.882670" lon="-114.669530">
        <ele>232.915</ele>
        <time>2018-12-28T09:12:33Z</time>
      </trkpt>
      <trkpt lat="34.882850" lon="-114.669910">
        <ele>233.508</ele>
        <time>2018-12-28T09:12:53Z</time>
      </trkpt>
      <trkpt lat="34.882910" lon="-114.670060">
        <ele>233.974</ele>
        <time>2018-12-28T09:13:13Z</time>
      </trkpt>
      <trkpt lat="34.883040" lon="-114.670340">
        <ele>234.762</ele>
        <time>2018-12-28T09:13:33Z</time>
      </trkpt>
      <trkpt lat="34.883220" lon="-114.670770">
        <ele>236.927</ele>
        <time>2018-12-28T09:13:53Z</time>
      </trkpt>
      <trkpt lat="34.883340" lon="-114.671050">
        <ele>238.278</ele>
        <time>2018-12-28T09:14:13Z</time>
      </trkpt>
      <trkpt lat="34.883730" lon="-114.672040">
        <ele>239.143</ele>
        <time>2018-12-28T09:14:33Z</time>
      </trkpt>
      <trkpt lat="34.883840" lon="-114.672350">
        <ele>239.974</ele>
        <time>2018-12-28T09:14:53Z</time>
      </trkpt>
      <trkpt lat="34.883950" lon="-114.672630">
        <ele>243.167</ele>
        <time>2018-12-28T09:15:13Z</time>
      </trkpt>
      <trkpt lat="34.884000" lon="-114.672780">
        <ele>243.797</ele>
        <time>2018-12-28T09:15:33Z</time>
      </trkpt>
      <trkpt lat="34.884150" lon="-114.673220">
        <ele>244.393</ele>
        <time>2018-12-28T09:15:53Z</time>
      </trkpt>
      <trkpt lat="34.884860" lon="-114.675360">
        <ele>250.465</ele>
        <time>2018-12-28T09:16:13Z</time>
      </trkpt>
      <trkpt lat="34.886170" lon="-114.679480">
        <ele>253.821</ele>
        <time>2018-12-28T09:16:33Z</time>
      </trkpt>
      <trkpt lat="34.887090" lon="-114.682260">
        <ele>260.108</ele>
        <time>2018-12-28T09:16:53Z</time>
      </trkpt>
      <trkpt lat="34.887400" lon="-114.683250">
        <ele>261.892</ele>
        <time>2018-12-28T09:17:13Z</time>
      </trkpt>
      <trkpt lat="34.888530" lon="-114.686710">
        <ele>269.270</ele>
        <time>2018-12-28T09:17:33Z</time>
      </trkpt>
      <trkpt lat="34.888890" lon="-114.687870">
        <ele>270.445</ele>
        <time>2018-12-28T09:17:53Z</time>
      </trkpt>
      <trkpt lat="34.890130" lon="-114.691690">
        <ele>276.286</ele>
        <time>2018-12-28T09:18:13Z</time>
      </trkpt>
      <trkpt lat="34.890440" lon="-114.692620">
        <ele>280.211</ele>
        <time>2018-12-28T09:18:33Z</time>
      </trkpt>
      <trkpt lat="34.890620" lon="-114.693180">
        <ele>281.162</ele>
        <time>2018-12-28T09:18:53Z</time>
      </trkpt>
      <trkpt lat="34.890770" lon="-114.693640">
        <ele>281.255</ele>
        <time>2018-12-28T09:19:13Z</time>
      </trkpt>
      <trkpt lat="34.890850" lon="-114.693910">
        <ele>281.695</ele>
        <time>2018-12-28T09:19:33Z</time>
      </trkpt>
      <trkpt lat="34.891000" lon="-114.694340">
        <ele>282.364</ele>
        <time>2018-12-28T09:19:53Z</time>
      </trkpt>
      <trkpt lat="34.891090" lon="-114.694640">
        <ele>282.906</ele>
        <time>2018-12-28T09:20:13Z</time>
      </trkpt>
      <trkpt lat="34.891170" lon="-114.694930">
        <ele>283.616</ele>
        <time>2018-12-28T09:20:33Z</time>
      </trkpt>
      <trkpt lat="34.891300" lon="-114.695340">
        <ele>285.208</ele>
        <time>2018-12-28T09:20:53Z</time>
      </trkpt>
      <trkpt lat="34.891330" lon="-114.695480">
        <ele>285.579</ele>
        <time>2018-12-28T09:21:13Z</time>
      </trkpt>
      <trkpt lat="34.891370" lon="-114.695650">
        <ele>286.087</ele>
        <time>2018-12-28T09:21:33Z</time>
      </trkpt>
      <trkpt lat="34.891430" lon="-114.695940">
        <ele>286.992</ele>
        <time>2018-12-28T09:21:53Z</time>
      </trkpt>
      <trkpt lat="34.891460" lon="-114.696070">
        <ele>287.113</ele>
        <time>2018-12-28T09:22:13Z</time>
      </trkpt>
      <trkpt lat="34.891580" lon="-114.696770">
        <ele>287.248</ele>
        <time>2018-12-28T09:22:33Z</time>
      </trkpt>
      <trkpt lat="34.891620" lon="-114.697060">
        <ele>287.499</ele>
        <time>2018-12-28T09:22:53Z</time>
      </trkpt>
      <trkpt lat="34.891690" lon="-114.697680">
        <ele>287.612</ele>
        <time>2018-12-28T09:23:13Z</time>
      </trkpt>
      <trkpt lat="34.891730" lon="-114.698320">
        <ele>292.012</ele>
        <time>2018-12-28T09:23:33Z</time>
      </trkpt>
      <trkpt lat="34.891730" lon="-114.698470">
        <ele>292.355</ele>
        <time>2018-12-28T09:23:53Z</time>
      </trkpt>
      <trkpt lat="34.891740" lon="-114.698970">
        <ele>292.407</ele>
        <time>2018-12-28T09:24:13Z</time>
      </trkpt>
      <trkpt lat="34.891740" lon="-114.699270">
        <ele>292.317</ele>
        <time>2018-12-28T09:24:33Z</time>
      </trkpt>
      <trkpt lat="34.891710" lon="-114.699910">
        <ele>293.208</ele>
        <time>2018-12-28T09:24:53Z</time>
      </trkpt>
      <trkpt lat="34.891700" lon="-114.700070">
        <ele>293.338</ele>
        <time>2018-12-28T09:25:13Z</time>
      </trkpt>
      <trkpt lat="34.891690" lon="-114.700240">
        <ele>294.236</ele>
        <time>2018-12-28T09:25:33Z</time>
      </trkpt>
      <trkpt lat="34.891660" lon="-114.700540">
        <ele>296.241</ele>
        <time>2018-12-28T09:25:53Z</time>
      </trkpt>
      <trkpt lat="34.891620" lon="-114.700910">
        <ele>295.962</ele>
        <time>2018-12-28T09:26:13Z</time>
      </trkpt>
      <trkpt lat="34.891580" lon="-114.701170">
        <ele>296.057</ele>
        <time>2018-12-28T09:26:33Z</time>
      </trkpt>
      <trkpt lat="34.891480" lon="-114.701810">
        <ele>293.968</ele>
        <time>2018-12-28T09:26:53Z</time>
      </trkpt>
      <trkpt lat="34.891380" lon="-114.702280">
        <ele>295.331</ele>
        <time>2018-12-28T09:27:13Z</time>
      </trkpt>
      <trkpt lat="34.891260" lon="-114.702730">
        <ele>298.641</ele>
        <time>2018-12-28T09:27:33Z</time>
      </trkpt>
      <trkpt lat="34.891080" lon="-114.703370">
        <ele>299.076</ele>
        <time>2018-12-28T09:27:53Z</time>
      </trkpt>
      <trkpt lat="34.890210" lon="-114.706190">
        <ele>301.090</ele>
        <time>2018-12-28T09:28:13Z</time>
      </trkpt>
      <trkpt lat="34.889910" lon="-114.707190">
        <ele>305.419</ele>
        <time>2018-12-28T09:28:33Z</time>
      </trkpt>
      <trkpt lat="34.889740" lon="-114.707770">
        <ele>306.808</ele>
        <time>2018-12-28T09:28:53Z</time>
      </trkpt>
      <trkpt lat="34.889600" lon="-114.708210">
        <ele>307.450</ele>
        <time>2018-12-28T09:29:13Z</time>
      </trkpt>
      <trkpt lat="34.889100" lon="-114.709830">
        <ele>310.218</ele>
        <time>2018-12-28T09:29:33Z</time>
      </trkpt>
      <trkpt lat="34.887840" lon="-114.714030">
        <ele>313.443</ele>
        <time>2018-12-28T09:29:53Z</time>
      </trkpt>
      <trkpt lat="34.887310" lon="-114.715770">
        <ele>314.364</ele>
        <time>2018-12-28T09:30:13Z</time>
      </trkpt>
      <trkpt lat="34.886890" lon="-114.717130">
        <ele>314.419</ele>
        <time>2018-12-28T09:30:33Z</time>
      </trkpt>
      <trkpt lat="34.886670" lon="-114.717900">
        <ele>318.680</ele>
        <time>2018-12-28T09:30:53Z</time>
      </trkpt>
      <trkpt lat="34.886410" lon="-114.718810">
        <ele>324.483</ele>
        <time>2018-12-28T09:31:13Z</time>
      </trkpt>
      <trkpt lat="34.886260" lon="-114.719310">
        <ele>318.333</ele>
        <time>2018-12-28T09:31:33Z</time>
      </trkpt>
      <trkpt lat="34.885840" lon="-114.720810">
        <ele>317.057</ele>
        <time>2018-12-28T09:31:53Z</time>
      </trkpt>
      <trkpt lat="34.885680" lon="-114.721410">
        <ele>317.700</ele>
        <time>2018-12-28T09:32:13Z</time>
      </trkpt>
      <trkpt lat="34.885190" lon="-114.723500">
        <ele>327.120</ele>
        <time>2018-12-28T09:32:33Z</time>
      </trkpt>
      <trkpt lat="34.885060" lon="-114.724110">
        <ele>325.508</ele>
        <time>2018-12-28T09:32:53Z</time>
      </trkpt>
      <trkpt lat="34.884980" lon="-114.724430">
        <ele>326.128</ele>
        <time>2018-12-28T09:33:13Z</time>
      </trkpt>
      <trkpt lat="34.884700" lon="-114.725810">
        <ele>335.446</ele>
        <time>2018-12-28T09:33:33Z</time>
      </trkpt>
      <trkpt lat="34.884160" lon="-114.728090">
        <ele>332.641</ele>
        <time>2018-12-28T09:33:53Z</time>
      </trkpt>
      <trkpt lat="34.884090" lon="-114.728400">
        <ele>330.742</ele>
        <time>2018-12-28T09:34:13Z</time>
      </trkpt>
      <trkpt lat="34.883950" lon="-114.729000">
        <ele>329.997</ele>
        <time>2018-12-28T09:34:33Z</time>
      </trkpt>
      <trkpt lat="34.883830" lon="-114.729500">
        <ele>329.818</ele>
        <time>2018-12-28T09:34:53Z</time>
      </trkpt>
      <trkpt lat="34.883750" lon="-114.729890">
        <ele>331.041</ele>
        <time>2018-12-28T09:35:13Z</time>
      </trkpt>
      <trkpt lat="34.883570" lon="-114.730670">
        <ele>330.891</ele>
        <time>2018-12-28T09:35:33Z</time>
      </trkpt>
      <trkpt lat="34.883060" lon="-114.732990">
        <ele>336.692</ele>
        <time>2018-12-28T09:35:53Z</time>
      </trkpt>
      <trkpt lat="34.882960" lon="-114.733440">
        <ele>336.673</ele>
        <time>2018-12-28T09:36:13Z</time>
      </trkpt>
      <trkpt lat="34.882810" lon="-114.734070">
        <ele>336.320</ele>
        <time>2018-12-28T09:36:33Z</time>
      </trkpt>
      <trkpt lat="34.882720" lon="-114.734530">
        <ele>338.908</ele>
        <time>2018-12-28T09:36:53Z</time>
      </trkpt>
      <trkpt lat="34.882550" lon="-114.735270">
        <ele>342.032</ele>
        <time>2018-12-28T09:37:13Z</time>
      </trkpt>
      <trkpt lat="34.882440" lon="-114.735750">
        <ele>342.020</ele>
        <time>2018-12-28T09:37:33Z</time>
      </trkpt>
      <trkpt lat="34.882310" lon="-114.736330">
        <ele>342.275</ele>
        <time>2018-12-28T09:37:53Z</time>
      </trkpt>
      <trkpt lat="34.882260" lon="-114.736540">
        <ele>342.116</ele>
        <time>2018-12-28T09:38:13Z</time>
      </trkpt>
      <trkpt lat="34.882210" lon="-114.736810">
        <ele>342.751</ele>
        <time>2018-12-28T09:38:33Z</time>
      </trkpt>
      <trkpt lat="34.882110" lon="-114.737250">
        <ele>343.692</ele>
        <time>2018-12-28T09:38:53Z</time>
      </trkpt>
      <trkpt lat="34.882000" lon="-114.737710">
        <ele>344.435</ele>
        <time>2018-12-28T09:39:13Z</time>
      </trkpt>
      <trkpt lat="34.881900" lon="-114.738190">
        <ele>345.215</ele>
        <time>2018-12-28T09:39:33Z</time>
      </trkpt>
      <trkpt lat="34.881790" lon="-114.738650">
        <ele>345.963</ele>
        <time>2018-12-28T09:39:53Z</time>
      </trkpt>
      <trkpt lat="34.881690" lon="-114.739100">
        <ele>346.644</ele>
        <time>2018-12-28T09:40:13Z</time>
      </trkpt>
      <trkpt lat="34.881310" lon="-114.740810">
        <ele>348.018</ele>
        <time>2018-12-28T09:40:33Z</time>
      </trkpt>
      <trkpt lat="34.881130" lon="-114.741560">
        <ele>348.108</ele>
        <time>2018-12-28T09:40:53Z</time>
      </trkpt>
      <trkpt lat="34.880970" lon="-114.742320">
        <ele>350.629</ele>
        <time>2018-12-28T09:41:13Z</time>
      </trkpt>
      <trkpt lat="34.880810" lon="-114.743100">
        <ele>354.257</ele>
        <time>2018-12-28T09:41:33Z</time>
      </trkpt>
      <trkpt lat="34.880660" lon="-114.743700">
        <ele>354.452</ele>
        <time>2018-12-28T09:41:53Z</time>
      </trkpt>
      <trkpt lat="34.880560" lon="-114.744160">
        <ele>355.563</ele>
        <time>2018-12-28T09:42:13Z</time>
      </trkpt>
      <trkpt lat="34.880400" lon="-114.744930">
        <ele>360.068</ele>
        <time>2018-12-28T09:42:33Z</time>
      </trkpt>
      <trkpt lat="34.880330" lon="-114.745220">
        <ele>359.949</ele>
        <time>2018-12-28T09:42:53Z</time>
      </trkpt>
      <trkpt lat="34.880220" lon="-114.745680">
        <ele>359.822</ele>
        <time>2018-12-28T09:43:13Z</time>
      </trkpt>
      <trkpt lat="34.880150" lon="-114.745980">
        <ele>360.032</ele>
        <time>2018-12-28T09:43:33Z</time>
      </trkpt>
      <trkpt lat="34.880110" lon="-114.746140">
        <ele>360.194</ele>
        <time>2018-12-28T09:43:53Z</time>
      </trkpt>
      <trkpt lat="34.880040" lon="-114.746440">
        <ele>360.057</ele>
        <time>2018-12-28T09:44:13Z</time>
      </trkpt>
      <trkpt lat="34.880010" lon="-114.746600">
        <ele>360.322</ele>
        <time>2018-12-28T09:44:33Z</time>
      </trkpt>
      <trkpt lat="34.879980" lon="-114.746730">
        <ele>361.408</ele>
        <time>2018-12-28T09:44:53Z</time>
      </trkpt>
      <trkpt lat="34.879950" lon="-114.746910">
        <ele>363.682</ele>
        <time>2018-12-28T09:45:13Z</time>
      </trkpt>
      <trkpt lat="34.879920" lon="-114.747070">
        <ele>365.730</ele>
        <time>2018-12-28T09:45:33Z</time>
      </trkpt>
      <trkpt lat="34.879600" lon="-114.748440">
        <ele>368.385</ele>
        <time>2018-12-28T09:45:53Z</time>
      </trkpt>
      <trkpt lat="34.879510" lon="-114.748890">
        <ele>371.516</ele>
        <time>2018-12-28T09:46:13Z</time>
      </trkpt>
      <trkpt lat="34.879400" lon="-114.749390">
        <ele>374.341</ele>
        <time>2018-12-28T09:46:33Z</time>
      </trkpt>
      <trkpt lat="34.879160" lon="-114.750470">
        <ele>374.962</ele>
        <time>2018-12-28T09:46:53Z</time>
      </trkpt>
      <trkpt lat="34.878900" lon="-114.751640">
        <ele>376.355</ele>
        <time>2018-12-28T09:47:13Z</time>
      </trkpt>
      <trkpt lat="34.878620" lon="-114.752890">
        <ele>378.245</ele>
        <time>2018-12-28T09:47:33Z</time>
      </trkpt>
      <trkpt lat="34.878560" lon="-114.753190">
        <ele>378.683</ele>
        <time>2018-12-28T09:47:53Z</time>
      </trkpt>
      <trkpt lat="34.878470" lon="-114.753640">
        <ele>379.325</ele>
        <time>2018-12-28T09:48:13Z</time>
      </trkpt>
      <trkpt lat="34.878400" lon="-114.754110">
        <ele>380.517</ele>
        <time>2018-12-28T09:48:33Z</time>
      </trkpt>
      <trkpt lat="34.878350" lon="-114.754570">
        <ele>381.808</ele>
        <time>2018-12-28T09:48:53Z</time>
      </trkpt>
      <trkpt lat="34.878310" lon="-114.754900">
        <ele>382.561</ele>
        <time>2018-12-28T09:49:13Z</time>
      </trkpt>
      <trkpt lat="34.878280" lon="-114.755230">
        <ele>383.689</ele>
        <time>2018-12-28T09:49:33Z</time>
      </trkpt>
      <trkpt lat="34.878260" lon="-114.755460">
        <ele>384.394</ele>
        <time>2018-12-28T09:49:53Z</time>
      </trkpt>
      <trkpt lat="34.878250" lon="-114.755630">
        <ele>384.165</ele>
        <time>2018-12-28T09:50:13Z</time>
      </trkpt>
      <trkpt lat="34.878230" lon="-114.756000">
        <ele>383.720</ele>
        <time>2018-12-28T09:50:33Z</time>
      </trkpt>
      <trkpt lat="34.878210" lon="-114.756320">
        <ele>383.181</ele>
        <time>2018-12-28T09:50:53Z</time>
      </trkpt>
      <trkpt lat="34.878210" lon="-114.756630">
        <ele>383.064</ele>
        <time>2018-12-28T09:51:13Z</time>
      </trkpt>
      <trkpt lat="34.878200" lon="-114.756960">
        <ele>382.934</ele>
        <time>2018-12-28T09:51:33Z</time>
      </trkpt>
      <trkpt lat="34.878210" lon="-114.757260">
        <ele>383.248</ele>
        <time>2018-12-28T09:51:53Z</time>
      </trkpt>
      <trkpt lat="34.878210" lon="-114.757460">
        <ele>383.761</ele>
        <time>2018-12-28T09:52:13Z</time>
      </trkpt>
      <trkpt lat="34.878220" lon="-114.757680">
        <ele>384.417</ele>
        <time>2018-12-28T09:52:33Z</time>
      </trkpt>
      <trkpt lat="34.878240" lon="-114.757900">
        <ele>385.608</ele>
        <time>2018-12-28T09:52:53Z</time>
      </trkpt>
      <trkpt lat="34.878270" lon="-114.758300">
        <ele>386.887</ele>
        <time>2018-12-28T09:53:13Z</time>
      </trkpt>
      <trkpt lat="34.878280" lon="-114.758540">
        <ele>387.035</ele>
        <time>2018-12-28T09:53:33Z</time>
      </trkpt>
      <trkpt lat="34.878310" lon="-114.758860">
        <ele>387.120</ele>
        <time>2018-12-28T09:53:53Z</time>
      </trkpt>
      <trkpt lat="34.878360" lon="-114.759320">
        <ele>387.391</ele>
        <time>2018-12-28T09:54:13Z</time>
      </trkpt>
      <trkpt lat="34.878450" lon="-114.759940">
        <ele>387.456</ele>
        <time>2018-12-28T09:54:33Z</time>
      </trkpt>
      <trkpt lat="34.878510" lon="-114.760260">
        <ele>387.837</ele>
        <time>2018-12-28T09:54:53Z</time>
      </trkpt>
      <trkpt lat="34.878570" lon="-114.760550">
        <ele>388.550</ele>
        <time>2018-12-28T09:55:13Z</time>
      </trkpt>
      <trkpt lat="34.878690" lon="-114.761150">
        <ele>389.370</ele>
        <time>2018-12-28T09:55:33Z</time>
      </trkpt>
      <trkpt lat="34.878760" lon="-114.761460">
        <ele>389.848</ele>
        <time>2018-12-28T09:55:53Z</time>
      </trkpt>
      <trkpt lat="34.878790" lon="-114.761540">
        <ele>390.161</ele>
        <time>2018-12-28T09:56:13Z</time>
      </trkpt>
      <trkpt lat="34.878880" lon="-114.761920">
        <ele>391.217</ele>
        <time>2018-12-28T09:56:33Z</time>
      </trkpt>
      <trkpt lat="34.879030" lon="-114.762420">
        <ele>392.408</ele>
        <time>2018-12-28T09:56:53Z</time>
      </trkpt>
      <trkpt lat="34.879130" lon="-114.762810">
        <ele>391.897</ele>
        <time>2018-12-28T09:57:13Z</time>
      </trkpt>
      <trkpt lat="34.879380" lon="-114.763710">
        <ele>390.095</ele>
        <time>2018-12-28T09:57:33Z</time>
      </trkpt>
      <trkpt lat="34.879690" lon="-114.764800">
        <ele>391.140</ele>
        <time>2018-12-28T09:57:53Z</time>
      </trkpt>
      <trkpt lat="34.880070" lon="-114.766110">
        <ele>396.771</ele>
        <time>2018-12-28T09:58:13Z</time>
      </trkpt>
      <trkpt lat="34.880120" lon="-114.766250">
        <ele>397.856</ele>
        <time>2018-12-28T09:58:33Z</time>
      </trkpt>
      <trkpt lat="34.880420" lon="-114.767320">
        <ele>400.737</ele>
        <time>2018-12-28T09:58:53Z</time>
      </trkpt>
      <trkpt lat="34.880550" lon="-114.767760">
        <ele>400.880</ele>
        <time>2018-12-28T09:59:13Z</time>
      </trkpt>
      <trkpt lat="34.880710" lon="-114.768350">
        <ele>400.860</ele>
        <time>2018-12-28T09:59:33Z</time>
      </trkpt>
      <trkpt lat="34.880920" lon="-114.769110">
        <ele>401.522</ele>
        <time>2018-12-28T09:59:53Z</time>
      </trkpt>
      <trkpt lat="34.881310" lon="-114.770460">
        <ele>406.062</ele>
        <time>2018-12-28T10:00:13Z</time>
      </trkpt>
      <trkpt lat="34.881620" lon="-114.771510">
        <ele>410.108</ele>
        <time>2018-12-28T10:00:33Z</time>
      </trkpt>
      <trkpt lat="34.881710" lon="-114.771810">
        <ele>411.008</ele>
        <time>2018-12-28T10:00:53Z</time>
      </trkpt>
      <trkpt lat="34.881790" lon="-114.772110">
        <ele>411.715</ele>
        <time>2018-12-28T10:01:13Z</time>
      </trkpt>
      <trkpt lat="34.881920" lon="-114.772570">
        <ele>412.333</ele>
        <time>2018-12-28T10:01:33Z</time>
      </trkpt>
      <trkpt lat="34.882210" lon="-114.773610">
        <ele>414.588</ele>
        <time>2018-12-28T10:01:53Z</time>
      </trkpt>
      <trkpt lat="34.882290" lon="-114.773920">
        <ele>416.089</ele>
        <time>2018-12-28T10:02:13Z</time>
      </trkpt>
      <trkpt lat="34.882540" lon="-114.774940">
        <ele>419.724</ele>
        <time>2018-12-28T10:02:33Z</time>
      </trkpt>
      <trkpt lat="34.882630" lon="-114.775430">
        <ele>420.725</ele>
        <time>2018-12-28T10:02:53Z</time>
      </trkpt>
      <trkpt lat="34.882660" lon="-114.775600">
        <ele>421.288</ele>
        <time>2018-12-28T10:03:13Z</time>
      </trkpt>
      <trkpt lat="34.882700" lon="-114.775800">
        <ele>421.698</ele>
        <time>2018-12-28T10:03:33Z</time>
      </trkpt>
      <trkpt lat="34.882770" lon="-114.776200">
        <ele>422.192</ele>
        <time>2018-12-28T10:03:53Z</time>
      </trkpt>
      <trkpt lat="34.882860" lon="-114.776830">
        <ele>423.673</ele>
        <time>2018-12-28T10:04:13Z</time>
      </trkpt>
      <trkpt lat="34.882920" lon="-114.777200">
        <ele>424.520</ele>
        <time>2018-12-28T10:04:33Z</time>
      </trkpt>
      <trkpt lat="34.883070" lon="-114.778400">
        <ele>429.408</ele>
        <time>2018-12-28T10:04:53Z</time>
      </trkpt>
      <trkpt lat="34.883120" lon="-114.779020">
        <ele>430.812</ele>
        <time>2018-12-28T10:05:13Z</time>
      </trkpt>
      <trkpt lat="34.883150" lon="-114.779500">
        <ele>431.110</ele>
        <time>2018-12-28T10:05:33Z</time>
      </trkpt>
      <trkpt lat="34.883170" lon="-114.779820">
        <ele>431.525</ele>
        <time>2018-12-28T10:05:53Z</time>
      </trkpt>
      <trkpt lat="34.883200" lon="-114.780450">
        <ele>433.796</ele>
        <time>2018-12-28T10:06:13Z</time>
      </trkpt>
      <trkpt lat="34.883230" lon="-114.781230">
        <ele>436.811</ele>
        <time>2018-12-28T10:06:33Z</time>
      </trkpt>
      <trkpt lat="34.883230" lon="-114.782040">
        <ele>439.562</ele>
        <time>2018-12-28T10:06:53Z</time>
      </trkpt>
      <trkpt lat="34.883220" lon="-114.782330">
        <ele>440.635</ele>
        <time>2018-12-28T10:07:13Z</time>
      </trkpt>
      <trkpt lat="34.883220" lon="-114.782510">
        <ele>440.945</ele>
        <time>2018-12-28T10:07:33Z</time>
      </trkpt>
      <trkpt lat="34.883210" lon="-114.782670">
        <ele>441.043</ele>
        <time>2018-12-28T10:07:53Z</time>
      </trkpt>
      <trkpt lat="34.883200" lon="-114.782980">
        <ele>441.264</ele>
        <time>2018-12-28T10:08:13Z</time>
      </trkpt>
      <trkpt lat="34.883180" lon="-114.783310">
        <ele>441.510</ele>
        <time>2018-12-28T10:08:33Z</time>
      </trkpt>
      <trkpt lat="34.883150" lon="-114.783780">
        <ele>442.608</ele>
        <time>2018-12-28T10:08:53Z</time>
      </trkpt>
      <trkpt lat="34.883120" lon="-114.784240">
        <ele>443.847</ele>
        <time>2018-12-28T10:09:13Z</time>
      </trkpt>
      <trkpt lat="34.883080" lon="-114.784710">
        <ele>445.355</ele>
        <time>2018-12-28T10:09:33Z</time>
      </trkpt>
      <trkpt lat="34.883030" lon="-114.785210">
        <ele>447.220</ele>
        <time>2018-12-28T10:09:53Z</time>
      </trkpt>
      <trkpt lat="34.882960" lon="-114.785800">
        <ele>450.441</ele>
        <time>2018-12-28T10:10:13Z</time>
      </trkpt>
      <trkpt lat="34.882920" lon="-114.786140">
        <ele>451.176</ele>
        <time>2018-12-28T10:10:33Z</time>
      </trkpt>
      <trkpt lat="34.882870" lon="-114.786450">
        <ele>451.497</ele>
        <time>2018-12-28T10:10:53Z</time>
      </trkpt>
      <trkpt lat="34.882840" lon="-114.786590">
        <ele>451.480</ele>
        <time>2018-12-28T10:11:13Z</time>
      </trkpt>
      <trkpt lat="34.882790" lon="-114.786910">
        <ele>451.570</ele>
        <time>2018-12-28T10:11:33Z</time>
      </trkpt>
      <trkpt lat="34.882710" lon="-114.787370">
        <ele>452.265</ele>
        <time>2018-12-28T10:11:53Z</time>
      </trkpt>
      <trkpt lat="34.882620" lon="-114.787840">
        <ele>453.568</ele>
        <time>2018-12-28T10:12:13Z</time>
      </trkpt>
      <trkpt lat="34.882470" lon="-114.788610">
        <ele>457.014</ele>
        <time>2018-12-28T10:12:33Z</time>
      </trkpt>
      <trkpt lat="34.882440" lon="-114.788760">
        <ele>457.808</ele>
        <time>2018-12-28T10:12:53Z</time>
      </trkpt>
      <trkpt lat="34.882400" lon="-114.788920">
        <ele>459.019</ele>
        <time>2018-12-28T10:13:13Z</time>
      </trkpt>
      <trkpt lat="34.882370" lon="-114.789070">
        <ele>459.947</ele>
        <time>2018-12-28T10:13:33Z</time>
      </trkpt>
      <trkpt lat="34.882330" lon="-114.789220">
        <ele>460.542</ele>
        <time>2018-12-28T10:13:53Z</time>
      </trkpt>
      <trkpt lat="34.882050" lon="-114.790290">
        <ele>462.183</ele>
        <time>2018-12-28T10:14:13Z</time>
      </trkpt>
      <trkpt lat="34.881960" lon="-114.790580">
        <ele>462.888</ele>
        <time>2018-12-28T10:14:33Z</time>
      </trkpt>
      <trkpt lat="34.881850" lon="-114.790930">
        <ele>463.559</ele>
        <time>2018-12-28T10:14:53Z</time>
      </trkpt>
      <trkpt lat="34.881320" lon="-114.792660">
        <ele>470.772</ele>
        <time>2018-12-28T10:15:13Z</time>
      </trkpt>
      <trkpt lat="34.881030" lon="-114.793550">
        <ele>471.432</ele>
        <time>2018-12-28T10:15:33Z</time>
      </trkpt>
      <trkpt lat="34.880800" lon="-114.794280">
        <ele>473.379</ele>
        <time>2018-12-28T10:15:53Z</time>
      </trkpt>
      <trkpt lat="34.880390" lon="-114.795630">
        <ele>479.705</ele>
        <time>2018-12-28T10:16:13Z</time>
      </trkpt>
      <trkpt lat="34.880300" lon="-114.795920">
        <ele>480.525</ele>
        <time>2018-12-28T10:16:33Z</time>
      </trkpt>
      <trkpt lat="34.879970" lon="-114.796960">
        <ele>481.208</ele>
        <time>2018-12-28T10:16:53Z</time>
      </trkpt>
      <trkpt lat="34.879730" lon="-114.797680">
        <ele>482.260</ele>
        <time>2018-12-28T10:17:13Z</time>
      </trkpt>
      <trkpt lat="34.879360" lon="-114.798880">
        <ele>486.988</ele>
        <time>2018-12-28T10:17:33Z</time>
      </trkpt>
      <trkpt lat="34.879280" lon="-114.799180">
        <ele>489.753</ele>
        <time>2018-12-28T10:17:53Z</time>
      </trkpt>
      <trkpt lat="34.879190" lon="-114.799460">
        <ele>490.634</ele>
        <time>2018-12-28T10:18:13Z</time>
      </trkpt>
      <trkpt lat="34.878990" lon="-114.800070">
        <ele>490.789</ele>
        <time>2018-12-28T10:18:33Z</time>
      </trkpt>
      <trkpt lat="34.878670" lon="-114.801070">
        <ele>492.780</ele>
        <time>2018-12-28T10:18:53Z</time>
      </trkpt>
      <trkpt lat="34.878490" lon="-114.801660">
        <ele>494.793</ele>
        <time>2018-12-28T10:19:13Z</time>
      </trkpt>
      <trkpt lat="34.878170" lon="-114.802710">
        <ele>500.443</ele>
        <time>2018-12-28T10:19:33Z</time>
      </trkpt>
      <trkpt lat="34.877890" lon="-114.803600">
        <ele>501.248</ele>
        <time>2018-12-28T10:19:53Z</time>
      </trkpt>
      <trkpt lat="34.877610" lon="-114.804480">
        <ele>505.561</ele>
        <time>2018-12-28T10:20:13Z</time>
      </trkpt>
      <trkpt lat="34.877530" lon="-114.804780">
        <ele>507.617</ele>
        <time>2018-12-28T10:20:33Z</time>
      </trkpt>
      <trkpt lat="34.877390" lon="-114.805220">
        <ele>508.808</ele>
        <time>2018-12-28T10:20:53Z</time>
      </trkpt>
      <trkpt lat="34.877290" lon="-114.805520">
        <ele>507.557</ele>
        <time>2018-12-28T10:21:13Z</time>
      </trkpt>
      <trkpt lat="34.877030" lon="-114.806350">
        <ele>509.815</ele>
        <time>2018-12-28T10:21:33Z</time>
      </trkpt>
      <trkpt lat="34.876820" lon="-114.806980">
        <ele>511.170</ele>
        <time>2018-12-28T10:21:53Z</time>
      </trkpt>
      <trkpt lat="34.876540" lon="-114.807870">
        <ele>512.191</ele>
        <time>2018-12-28T10:22:13Z</time>
      </trkpt>
      <trkpt lat="34.876270" lon="-114.808750">
        <ele>514.786</ele>
        <time>2018-12-28T10:22:33Z</time>
      </trkpt>
      <trkpt lat="34.876180" lon="-114.809030">
        <ele>516.057</ele>
        <time>2018-12-28T10:22:53Z</time>
      </trkpt>
      <trkpt lat="34.876090" lon="-114.809340">
        <ele>518.130</ele>
        <time>2018-12-28T10:23:13Z</time>
      </trkpt>
      <trkpt lat="34.876030" lon="-114.809520">
        <ele>519.970</ele>
        <time>2018-12-28T10:23:33Z</time>
      </trkpt>
      <trkpt lat="34.875770" lon="-114.810370">
        <ele>521.162</ele>
        <time>2018-12-28T10:23:53Z</time>
      </trkpt>
      <trkpt lat="34.875630" lon="-114.810790">
        <ele>521.683</ele>
        <time>2018-12-28T10:24:13Z</time>
      </trkpt>
      <trkpt lat="34.875530" lon="-114.811120">
        <ele>521.911</ele>
        <time>2018-12-28T10:24:33Z</time>
      </trkpt>
      <trkpt lat="34.874930" lon="-114.813050">
        <ele>530.308</ele>
        <time>2018-12-28T10:24:53Z</time>
      </trkpt>
      <trkpt lat="34.874650" lon="-114.813920">
        <ele>531.469</ele>
        <time>2018-12-28T10:25:13Z</time>
      </trkpt>
      <trkpt lat="34.874470" lon="-114.814500">
        <ele>533.377</ele>
        <time>2018-12-28T10:25:33Z</time>
      </trkpt>
      <trkpt lat="34.874200" lon="-114.815390">
        <ele>537.392</ele>
        <time>2018-12-28T10:25:53Z</time>
      </trkpt>
      <trkpt lat="34.873920" lon="-114.816290">
        <ele>540.753</ele>
        <time>2018-12-28T10:26:13Z</time>
      </trkpt>
      <trkpt lat="34.873700" lon="-114.816950">
        <ele>542.078</ele>
        <time>2018-12-28T10:26:33Z</time>
      </trkpt>
      <trkpt lat="34.873360" lon="-114.818030">
        <ele>544.689</ele>
        <time>2018-12-28T10:26:53Z</time>
      </trkpt>
      <trkpt lat="34.872990" lon="-114.819220">
        <ele>549.522</ele>
        <time>2018-12-28T10:27:13Z</time>
      </trkpt>
      <trkpt lat="34.872760" lon="-114.819970">
        <ele>551.342</ele>
        <time>2018-12-28T10:27:33Z</time>
      </trkpt>
      <trkpt lat="34.872560" lon="-114.820570">
        <ele>552.211</ele>
        <time>2018-12-28T10:27:53Z</time>
      </trkpt>
      <trkpt lat="34.872070" lon="-114.822160">
        <ele>558.921</ele>
        <time>2018-12-28T10:28:13Z</time>
      </trkpt>
      <trkpt lat="34.871880" lon="-114.822750">
        <ele>560.503</ele>
        <time>2018-12-28T10:28:33Z</time>
      </trkpt>
      <trkpt lat="34.871800" lon="-114.823030">
        <ele>560.808</ele>
        <time>2018-12-28T10:28:53Z</time>
      </trkpt>
      <trkpt lat="34.871710" lon="-114.823340">
        <ele>561.144</ele>
        <time>2018-12-28T10:29:13Z</time>
      </trkpt>
      <trkpt lat="34.871620" lon="-114.823660">
        <ele>562.192</ele>
        <time>2018-12-28T10:29:33Z</time>
      </trkpt>
      <trkpt lat="34.871550" lon="-114.823950">
        <ele>562.947</ele>
        <time>2018-12-28T10:29:53Z</time>
      </trkpt>
      <trkpt lat="34.871490" lon="-114.824260">
        <ele>564.088</ele>
        <time>2018-12-28T10:30:13Z</time>
      </trkpt>
      <trkpt lat="34.871350" lon="-114.825030">
        <ele>570.213</ele>
        <time>2018-12-28T10:30:33Z</time>
      </trkpt>
      <trkpt lat="34.871240" lon="-114.825650">
        <ele>571.124</ele>
        <time>2018-12-28T10:30:53Z</time>
      </trkpt>
      <trkpt lat="34.871170" lon="-114.826080">
        <ele>571.227</ele>
        <time>2018-12-28T10:31:13Z</time>
      </trkpt>
      <trkpt lat="34.871090" lon="-114.826550">
        <ele>571.597</ele>
        <time>2018-12-28T10:31:33Z</time>
      </trkpt>
      <trkpt lat="34.871020" lon="-114.826970">
        <ele>572.029</ele>
        <time>2018-12-28T10:31:53Z</time>
      </trkpt>
      <trkpt lat="34.870930" lon="-114.827530">
        <ele>573.800</ele>
        <time>2018-12-28T10:32:13Z</time>
      </trkpt>
      <trkpt lat="34.870870" lon="-114.828000">
        <ele>577.120</ele>
        <time>2018-12-28T10:32:33Z</time>
      </trkpt>
      <trkpt lat="34.870830" lon="-114.828270">
        <ele>579.408</ele>
        <time>2018-12-28T10:32:53Z</time>
      </trkpt>
      <trkpt lat="34.870790" lon="-114.828510">
        <ele>580.625</ele>
        <time>2018-12-28T10:33:13Z</time>
      </trkpt>
      <trkpt lat="34.870720" lon="-114.828890">
        <ele>581.323</ele>
        <time>2018-12-28T10:33:33Z</time>
      </trkpt>
      <trkpt lat="34.870650" lon="-114.829360">
        <ele>581.848</ele>
        <time>2018-12-28T10:33:53Z</time>
      </trkpt>
      <trkpt lat="34.870590" lon="-114.829650">
        <ele>582.469</ele>
        <time>2018-12-28T10:34:13Z</time>
      </trkpt>
      <trkpt lat="34.870510" lon="-114.830050">
        <ele>583.674</ele>
        <time>2018-12-28T10:34:33Z</time>
      </trkpt>
      <trkpt lat="34.870460" lon="-114.830290">
        <ele>585.395</ele>
        <time>2018-12-28T10:34:53Z</time>
      </trkpt>
      <trkpt lat="34.870400" lon="-114.830570">
        <ele>587.468</ele>
        <time>2018-12-28T10:35:13Z</time>
      </trkpt>
      <trkpt lat="34.870360" lon="-114.830750">
        <ele>588.368</ele>
        <time>2018-12-28T10:35:33Z</time>
      </trkpt>
      <trkpt lat="34.870290" lon="-114.831020">
        <ele>589.262</ele>
        <time>2018-12-28T10:35:53Z</time>
      </trkpt>
      <trkpt lat="34.870190" lon="-114.831350">
        <ele>589.783</ele>
        <time>2018-12-28T10:36:13Z</time>
      </trkpt>
      <trkpt lat="34.869970" lon="-114.832060">
        <ele>591.811</ele>
        <time>2018-12-28T10:36:33Z</time>
      </trkpt>
      <trkpt lat="34.869770" lon="-114.832650">
        <ele>595.108</ele>
        <time>2018-12-28T10:36:53Z</time>
      </trkpt>
      <trkpt lat="34.869550" lon="-114.833230">
        <ele>597.219</ele>
        <time>2018-12-28T10:37:13Z</time>
      </trkpt>
      <trkpt lat="34.869380" lon="-114.833670">
        <ele>597.727</ele>
        <time>2018-12-28T10:37:33Z</time>
      </trkpt>
      <trkpt lat="34.869210" lon="-114.834120">
        <ele>598.862</ele>
        <time>2018-12-28T10:37:53Z</time>
      </trkpt>
      <trkpt lat="34.868940" lon="-114.834800">
        <ele>599.613</ele>
        <time>2018-12-28T10:38:13Z</time>
      </trkpt>
      <trkpt lat="34.868830" lon="-114.835070">
        <ele>599.428</ele>
        <time>2018-12-28T10:38:33Z</time>
      </trkpt>
      <trkpt lat="34.868710" lon="-114.835380">
        <ele>599.899</ele>
        <time>2018-12-28T10:38:53Z</time>
      </trkpt>
      <trkpt lat="34.868620" lon="-114.835660">
        <ele>600.522</ele>
        <time>2018-12-28T10:39:13Z</time>
      </trkpt>
      <trkpt lat="34.868570" lon="-114.835810">
        <ele>600.552</ele>
        <time>2018-12-28T10:39:33Z</time>
      </trkpt>
      <trkpt lat="34.868530" lon="-114.835940">
        <ele>600.525</ele>
        <time>2018-12-28T10:39:53Z</time>
      </trkpt>
      <trkpt lat="34.868470" lon="-114.836120">
        <ele>600.826</ele>
        <time>2018-12-28T10:40:13Z</time>
      </trkpt>
      <trkpt lat="34.868430" lon="-114.836260">
        <ele>600.908</ele>
        <time>2018-12-28T10:40:33Z</time>
      </trkpt>
      <trkpt lat="34.868390" lon="-114.836390">
        <ele>601.008</ele>
        <time>2018-12-28T10:40:53Z</time>
      </trkpt>
      <trkpt lat="34.868350" lon="-114.836570">
        <ele>601.485</ele>
        <time>2018-12-28T10:41:13Z</time>
      </trkpt>
      <trkpt lat="34.868320" lon="-114.836700">
        <ele>601.783</ele>
        <time>2018-12-28T10:41:33Z</time>
      </trkpt>
      <trkpt lat="34.868280" lon="-114.836870">
        <ele>602.948</ele>
        <time>2018-12-28T10:41:53Z</time>
      </trkpt>
      <trkpt lat="34.868230" lon="-114.837190">
        <ele>606.829</ele>
        <time>2018-12-28T10:42:13Z</time>
      </trkpt>
      <trkpt lat="34.868160" lon="-114.837610">
        <ele>609.374</ele>
        <time>2018-12-28T10:42:33Z</time>
      </trkpt>
      <trkpt lat="34.868100" lon="-114.838070">
        <ele>609.755</ele>
        <time>2018-12-28T10:42:53Z</time>
      </trkpt>
      <trkpt lat="34.868070" lon="-114.838410">
        <ele>609.978</ele>
        <time>2018-12-28T10:43:13Z</time>
      </trkpt>
      <trkpt lat="34.868040" lon="-114.838860">
        <ele>611.168</ele>
        <time>2018-12-28T10:43:33Z</time>
      </trkpt>
      <trkpt lat="34.868010" lon="-114.839350">
        <ele>612.279</ele>
        <time>2018-12-28T10:43:53Z</time>
      </trkpt>
      <trkpt lat="34.867990" lon="-114.839800">
        <ele>612.005</ele>
        <time>2018-12-28T10:44:13Z</time>
      </trkpt>
      <trkpt lat="34.867970" lon="-114.840120">
        <ele>612.325</ele>
        <time>2018-12-28T10:44:33Z</time>
      </trkpt>
      <trkpt lat="34.867940" lon="-114.840580">
        <ele>613.508</ele>
        <time>2018-12-28T10:44:53Z</time>
      </trkpt>
      <trkpt lat="34.867930" lon="-114.840840">
        <ele>614.280</ele>
        <time>2018-12-28T10:45:13Z</time>
      </trkpt>
      <trkpt lat="34.867920" lon="-114.841140">
        <ele>614.638</ele>
        <time>2018-12-28T10:45:33Z</time>
      </trkpt>
      <trkpt lat="34.867910" lon="-114.841410">
        <ele>616.243</ele>
        <time>2018-12-28T10:45:53Z</time>
      </trkpt>
      <trkpt lat="34.867900" lon="-114.841660">
        <ele>619.054</ele>
        <time>2018-12-28T10:46:13Z</time>
      </trkpt>
      <trkpt lat="34.867880" lon="-114.841990">
        <ele>620.659</ele>
        <time>2018-12-28T10:46:33Z</time>
      </trkpt>
      <trkpt lat="34.867870" lon="-114.842360">
        <ele>620.780</ele>
        <time>2018-12-28T10:46:53Z</time>
      </trkpt>
      <trkpt lat="34.867830" lon="-114.843060">
        <ele>621.663</ele>
        <time>2018-12-28T10:47:13Z</time>
      </trkpt>
      <trkpt lat="34.867810" lon="-114.843460">
        <ele>622.723</ele>
        <time>2018-12-28T10:47:33Z</time>
      </trkpt>
      <trkpt lat="34.867800" lon="-114.843740">
        <ele>624.469</ele>
        <time>2018-12-28T10:47:53Z</time>
      </trkpt>
      <trkpt lat="34.867770" lon="-114.844230">
        <ele>627.604</ele>
        <time>2018-12-28T10:48:13Z</time>
      </trkpt>
      <trkpt lat="34.867760" lon="-114.844410">
        <ele>628.324</ele>
        <time>2018-12-28T10:48:33Z</time>
      </trkpt>
      <trkpt lat="34.867730" lon="-114.844880">
        <ele>629.808</ele>
        <time>2018-12-28T10:48:53Z</time>
      </trkpt>
      <trkpt lat="34.867720" lon="-114.845020">
        <ele>630.399</ele>
        <time>2018-12-28T10:49:13Z</time>
      </trkpt>
      <trkpt lat="34.867700" lon="-114.845200">
        <ele>630.987</ele>
        <time>2018-12-28T10:49:33Z</time>
      </trkpt>
      <trkpt lat="34.867690" lon="-114.845330">
        <ele>631.382</ele>
        <time>2018-12-28T10:49:53Z</time>
      </trkpt>
      <trkpt lat="34.867670" lon="-114.845480">
        <ele>631.873</ele>
        <time>2018-12-28T10:50:13Z</time>
      </trkpt>
      <trkpt lat="34.867610" lon="-114.845840">
        <ele>633.048</ele>
        <time>2018-12-28T10:50:33Z</time>
      </trkpt>
      <trkpt lat="34.867590" lon="-114.845970">
        <ele>633.759</ele>
        <time>2018-12-28T10:50:53Z</time>
      </trkpt>
      <trkpt lat="34.867540" lon="-114.846220">
        <ele>635.032</ele>
        <time>2018-12-28T10:51:13Z</time>
      </trkpt>
      <trkpt lat="34.867500" lon="-114.846440">
        <ele>636.262</ele>
        <time>2018-12-28T10:51:33Z</time>
      </trkpt>
      <trkpt lat="34.867430" lon="-114.846720">
        <ele>637.378</ele>
        <time>2018-12-28T10:51:53Z</time>
      </trkpt>
      <trkpt lat="34.867380" lon="-114.846940">
        <ele>637.933</ele>
        <time>2018-12-28T10:52:13Z</time>
      </trkpt>
      <trkpt lat="34.867310" lon="-114.847210">
        <ele>639.326</ele>
        <time>2018-12-28T10:52:33Z</time>
      </trkpt>
      <trkpt lat="34.867250" lon="-114.847390">
        <ele>640.408</ele>
        <time>2018-12-28T10:52:53Z</time>
      </trkpt>
      <trkpt lat="34.867180" lon="-114.847620">
        <ele>640.430</ele>
        <time>2018-12-28T10:53:13Z</time>
      </trkpt>
      <trkpt lat="34.867070" lon="-114.847910">
        <ele>641.178</ele>
        <time>2018-12-28T10:53:33Z</time>
      </trkpt>
      <trkpt lat="34.867020" lon="-114.848060">
        <ele>644.183</ele>
        <time>2018-12-28T10:53:53Z</time>
      </trkpt>
      <trkpt lat="34.866970" lon="-114.848220">
        <ele>646.574</ele>
        <time>2018-12-28T10:54:13Z</time>
      </trkpt>
      <trkpt lat="34.866910" lon="-114.848370">
        <ele>648.249</ele>
        <time>2018-12-28T10:54:33Z</time>
      </trkpt>
      <trkpt lat="34.866790" lon="-114.848640">
        <ele>649.050</ele>
        <time>2018-12-28T10:54:53Z</time>
      </trkpt>
      <trkpt lat="34.866660" lon="-114.848930">
        <ele>648.213</ele>
        <time>2018-12-28T10:55:13Z</time>
      </trkpt>
      <trkpt lat="34.866520" lon="-114.849200">
        <ele>648.043</ele>
        <time>2018-12-28T10:55:33Z</time>
      </trkpt>
      <trkpt lat="34.866430" lon="-114.849350">
        <ele>647.976</ele>
        <time>2018-12-28T10:55:53Z</time>
      </trkpt>
      <trkpt lat="34.866310" lon="-114.849570">
        <ele>648.190</ele>
        <time>2018-12-28T10:56:13Z</time>
      </trkpt>
      <trkpt lat="34.866000" lon="-114.850090">
        <ele>649.719</ele>
        <time>2018-12-28T10:56:33Z</time>
      </trkpt>
      <trkpt lat="34.865710" lon="-114.850580">
        <ele>652.308</ele>
        <time>2018-12-28T10:56:53Z</time>
      </trkpt>
      <trkpt lat="34.865470" lon="-114.850970">
        <ele>654.210</ele>
        <time>2018-12-28T10:57:13Z</time>
      </trkpt>
      <trkpt lat="34.865210" lon="-114.851380">
        <ele>652.648</ele>
        <time>2018-12-28T10:57:33Z</time>
      </trkpt>
      <trkpt lat="34.864920" lon="-114.851860">
        <ele>654.863</ele>
        <time>2018-12-28T10:57:53Z</time>
      </trkpt>
      <trkpt lat="34.864460" lon="-114.852610">
        <ele>657.934</ele>
        <time>2018-12-28T10:58:13Z</time>
      </trkpt>
      <trkpt lat="34.864160" lon="-114.853130">
        <ele>661.489</ele>
        <time>2018-12-28T10:58:33Z</time>
      </trkpt>
      <trkpt lat="34.863920" lon="-114.853500">
        <ele>662.110</ele>
        <time>2018-12-28T10:58:53Z</time>
      </trkpt>
      <trkpt lat="34.863850" lon="-114.853630">
        <ele>662.993</ele>
        <time>2018-12-28T10:59:13Z</time>
      </trkpt>
      <trkpt lat="34.863770" lon="-114.853760">
        <ele>664.113</ele>
        <time>2018-12-28T10:59:33Z</time>
      </trkpt>
      <trkpt lat="34.863700" lon="-114.853900">
        <ele>667.025</ele>
        <time>2018-12-28T10:59:53Z</time>
      </trkpt>
      <trkpt lat="34.863550" lon="-114.854150">
        <ele>669.626</ele>
        <time>2018-12-28T11:00:13Z</time>
      </trkpt>
      <trkpt lat="34.863400" lon="-114.854390">
        <ele>669.708</ele>
        <time>2018-12-28T11:00:33Z</time>
      </trkpt>
      <trkpt lat="34.863000" lon="-114.855040">
        <ele>670.908</ele>
        <time>2018-12-28T11:00:53Z</time>
      </trkpt>
      <trkpt lat="34.862770" lon="-114.855410">
        <ele>671.475</ele>
        <time>2018-12-28T11:01:13Z</time>
      </trkpt>
      <trkpt lat="34.862460" lon="-114.855910">
        <ele>673.383</ele>
        <time>2018-12-28T11:01:33Z</time>
      </trkpt>
      <trkpt lat="34.862170" lon="-114.856430">
        <ele>675.198</ele>
        <time>2018-12-28T11:01:53Z</time>
      </trkpt>
      <trkpt lat="34.862020" lon="-114.856700">
        <ele>676.639</ele>
        <time>2018-12-28T11:02:13Z</time>
      </trkpt>
      <trkpt lat="34.861810" lon="-114.857120">
        <ele>678.934</ele>
        <time>2018-12-28T11:02:33Z</time>
      </trkpt>
      <trkpt lat="34.861550" lon="-114.857660">
        <ele>681.455</ele>
        <time>2018-12-28T11:02:53Z</time>
      </trkpt>
      <trkpt lat="34.861360" lon="-114.858080">
        <ele>681.258</ele>
        <time>2018-12-28T11:03:13Z</time>
      </trkpt>
      <trkpt lat="34.861200" lon="-114.858470">
        <ele>681.218</ele>
        <time>2018-12-28T11:03:33Z</time>
      </trkpt>
      <trkpt lat="34.860980" lon="-114.859050">
        <ele>686.086</ele>
        <time>2018-12-28T11:03:53Z</time>
      </trkpt>
      <trkpt lat="34.860840" lon="-114.859500">
        <ele>689.160</ele>
        <time>2018-12-28T11:04:13Z</time>
      </trkpt>
      <trkpt lat="34.860650" lon="-114.860080">
        <ele>691.526</ele>
        <time>2018-12-28T11:04:33Z</time>
      </trkpt>
      <trkpt lat="34.860570" lon="-114.860370">
        <ele>692.408</ele>
        <time>2018-12-28T11:04:53Z</time>
      </trkpt>
      <trkpt lat="34.860500" lon="-114.860640">
        <ele>693.181</ele>
        <time>2018-12-28T11:05:13Z</time>
      </trkpt>
      <trkpt lat="34.860430" lon="-114.860890">
        <ele>694.149</ele>
        <time>2018-12-28T11:05:33Z</time>
      </trkpt>
      <trkpt lat="34.860370" lon="-114.861140">
        <ele>695.644</ele>
        <time>2018-12-28T11:05:53Z</time>
      </trkpt>
      <trkpt lat="34.860290" lon="-114.861570">
        <ele>699.325</ele>
        <time>2018-12-28T11:06:13Z</time>
      </trkpt>
      <trkpt lat="34.860230" lon="-114.861880">
        <ele>701.070</ele>
        <time>2018-12-28T11:06:33Z</time>
      </trkpt>
      <trkpt lat="34.860140" lon="-114.862320">
        <ele>701.691</ele>
        <time>2018-12-28T11:06:53Z</time>
      </trkpt>
      <trkpt lat="34.860050" lon="-114.862800">
        <ele>703.384</ele>
        <time>2018-12-28T11:07:13Z</time>
      </trkpt>
      <trkpt lat="34.860000" lon="-114.863130">
        <ele>705.294</ele>
        <time>2018-12-28T11:07:33Z</time>
      </trkpt>
      <trkpt lat="34.859900" lon="-114.863750">
        <ele>710.517</ele>
        <time>2018-12-28T11:07:53Z</time>
      </trkpt>
      <trkpt lat="34.859840" lon="-114.864050">
        <ele>711.287</ele>
        <time>2018-12-28T11:08:13Z</time>
      </trkpt>
      <trkpt lat="34.859780" lon="-114.864340">
        <ele>712.215</ele>
        <time>2018-12-28T11:08:33Z</time>
      </trkpt>
      <trkpt lat="34.859650" lon="-114.865120">
        <ele>717.208</ele>
        <time>2018-12-28T11:08:53Z</time>
      </trkpt>
      <trkpt lat="34.859490" lon="-114.866020">
        <ele>723.384</ele>
        <time>2018-12-28T11:09:13Z</time>
      </trkpt>
      <trkpt lat="34.859350" lon="-114.866830">
        <ele>728.432</ele>
        <time>2018-12-28T11:09:33Z</time>
      </trkpt>
      <trkpt lat="34.859270" lon="-114.867270">
        <ele>730.137</ele>
        <time>2018-12-28T11:09:53Z</time>
      </trkpt>
      <trkpt lat="34.859160" lon="-114.867900">
        <ele>731.518</ele>
        <time>2018-12-28T11:10:13Z</time>
      </trkpt>
      <trkpt lat="34.859130" lon="-114.868100">
        <ele>732.283</ele>
        <time>2018-12-28T11:10:33Z</time>
      </trkpt>
      <trkpt lat="34.859100" lon="-114.868340">
        <ele>734.164</ele>
        <time>2018-12-28T11:10:53Z</time>
      </trkpt>
      <trkpt lat="34.859060" lon="-114.868770">
        <ele>738.127</ele>
        <time>2018-12-28T11:11:13Z</time>
      </trkpt>
      <trkpt lat="34.859030" lon="-114.869140">
        <ele>741.357</ele>
        <time>2018-12-28T11:11:33Z</time>
      </trkpt>
      <trkpt lat="34.859020" lon="-114.869450">
        <ele>743.437</ele>
        <time>2018-12-28T11:11:53Z</time>
      </trkpt>
      <trkpt lat="34.859000" lon="-114.869950">
        <ele>745.149</ele>
        <time>2018-12-28T11:12:13Z</time>
      </trkpt>
      <trkpt lat="34.858980" lon="-114.870690">
        <ele>747.513</ele>
        <time>2018-12-28T11:12:33Z</time>
      </trkpt>
      <trkpt lat="34.858980" lon="-114.871190">
        <ele>751.108</ele>
        <time>2018-12-28T11:12:53Z</time>
      </trkpt>
      <trkpt lat="34.858960" lon="-114.871570">
        <ele>751.186</ele>
        <time>2018-12-28T11:13:13Z</time>
      </trkpt>
      <trkpt lat="34.858940" lon="-114.872250">
        <ele>751.234</ele>
        <time>2018-12-28T11:13:33Z</time>
      </trkpt>
      <trkpt lat="34.858930" lon="-114.872610">
        <ele>753.049</ele>
        <time>2018-12-28T11:13:53Z</time>
      </trkpt>
      <trkpt lat="34.858920" lon="-114.872910">
        <ele>754.710</ele>
        <time>2018-12-28T11:14:13Z</time>
      </trkpt>
      <trkpt lat="34.858910" lon="-114.873270">
        <ele>758.155</ele>
        <time>2018-12-28T11:14:33Z</time>
      </trkpt>
      <trkpt lat="34.858900" lon="-114.873590">
        <ele>761.396</ele>
        <time>2018-12-28T11:14:53Z</time>
      </trkpt>
      <trkpt lat="34.858890" lon="-114.873950">
        <ele>763.259</ele>
        <time>2018-12-28T11:15:13Z</time>
      </trkpt>
      <trkpt lat="34.858860" lon="-114.874340">
        <ele>763.659</ele>
        <time>2018-12-28T11:15:33Z</time>
      </trkpt>
      <trkpt lat="34.858820" lon="-114.874770">
        <ele>765.011</ele>
        <time>2018-12-28T11:15:53Z</time>
      </trkpt>
      <trkpt lat="34.858770" lon="-114.875240">
        <ele>770.221</ele>
        <time>2018-12-28T11:16:13Z</time>
      </trkpt>
      <trkpt lat="34.858760" lon="-114.875400">
        <ele>773.703</ele>
        <time>2018-12-28T11:16:33Z</time>
      </trkpt>
      <trkpt lat="34.858740" lon="-114.875560">
        <ele>774.908</ele>
        <time>2018-12-28T11:16:53Z</time>
      </trkpt>
      <trkpt lat="34.858710" lon="-114.875810">
        <ele>776.164</ele>
        <time>2018-12-28T11:17:13Z</time>
      </trkpt>
      <trkpt lat="34.858650" lon="-114.876220">
        <ele>775.572</ele>
        <time>2018-12-28T11:17:33Z</time>
      </trkpt>
      <trkpt lat="34.858550" lon="-114.876790">
        <ele>777.527</ele>
        <time>2018-12-28T11:17:53Z</time>
      </trkpt>
      <trkpt lat="34.858420" lon="-114.877410">
        <ele>778.858</ele>
        <time>2018-12-28T11:18:13Z</time>
      </trkpt>
      <trkpt lat="34.858290" lon="-114.878060">
        <ele>783.863</ele>
        <time>2018-12-28T11:18:33Z</time>
      </trkpt>
      <trkpt lat="34.858170" lon="-114.878550">
        <ele>786.134</ele>
        <time>2018-12-28T11:18:53Z</time>
      </trkpt>
      <trkpt lat="34.858010" lon="-114.879110">
        <ele>786.787</ele>
        <time>2018-12-28T11:19:13Z</time>
      </trkpt>
      <trkpt lat="34.857930" lon="-114.879400">
        <ele>787.587</ele>
        <time>2018-12-28T11:19:33Z</time>
      </trkpt>
      <trkpt lat="34.857840" lon="-114.879680">
        <ele>787.553</ele>
        <time>2018-12-28T11:19:53Z</time>
      </trkpt>
      <trkpt lat="34.857690" lon="-114.880130">
        <ele>787.204</ele>
        <time>2018-12-28T11:20:13Z</time>
      </trkpt>
      <trkpt lat="34.857450" lon="-114.880900">
        <ele>793.014</ele>
        <time>2018-12-28T11:20:33Z</time>
      </trkpt>
      <trkpt lat="34.857150" lon="-114.881760">
        <ele>794.208</ele>
        <time>2018-12-28T11:20:53Z</time>
      </trkpt>
      <trkpt lat="34.856940" lon="-114.882350">
        <ele>794.658</ele>
        <time>2018-12-28T11:21:13Z</time>
      </trkpt>
      <trkpt lat="34.856850" lon="-114.882610">
        <ele>794.386</ele>
        <time>2018-12-28T11:21:33Z</time>
      </trkpt>
      <trkpt lat="34.856780" lon="-114.882790">
        <ele>793.881</ele>
        <time>2018-12-28T11:21:53Z</time>
      </trkpt>
      <trkpt lat="34.856740" lon="-114.882930">
        <ele>794.082</ele>
        <time>2018-12-28T11:22:13Z</time>
      </trkpt>
      <trkpt lat="34.856650" lon="-114.883180">
        <ele>794.497</ele>
        <time>2018-12-28T11:22:33Z</time>
      </trkpt>
      <trkpt lat="34.856530" lon="-114.883530">
        <ele>794.828</ele>
        <time>2018-12-28T11:22:53Z</time>
      </trkpt>
      <trkpt lat="34.856250" lon="-114.884320">
        <ele>793.861</ele>
        <time>2018-12-28T11:23:13Z</time>
      </trkpt>
      <trkpt lat="34.855990" lon="-114.885100">
        <ele>794.591</ele>
        <time>2018-12-28T11:23:33Z</time>
      </trkpt>
      <trkpt lat="34.855860" lon="-114.885550">
        <ele>794.855</ele>
        <time>2018-12-28T11:23:53Z</time>
      </trkpt>
      <trkpt lat="34.855810" lon="-114.885720">
        <ele>794.507</ele>
        <time>2018-12-28T11:24:13Z</time>
      </trkpt>
      <trkpt lat="34.855770" lon="-114.885870">
        <ele>794.217</ele>
        <time>2018-12-28T11:24:33Z</time>
      </trkpt>
      <trkpt lat="34.855750" lon="-114.885940">
        <ele>794.008</ele>
        <time>2018-12-28T11:24:53Z</time>
      </trkpt>
      <trkpt lat="34.855720" lon="-114.886060">
        <ele>793.838</ele>
        <time>2018-12-28T11:25:13Z</time>
      </trkpt>
      <trkpt lat="34.855690" lon="-114.886170">
        <ele>793.686</ele>
        <time>2018-12-28T11:25:33Z</time>
      </trkpt>
      <trkpt lat="34.855620" lon="-114.886490">
        <ele>793.271</ele>
        <time>2018-12-28T11:25:53Z</time>
      </trkpt>
      <trkpt lat="34.855560" lon="-114.886770">
        <ele>792.632</ele>
        <time>2018-12-28T11:26:13Z</time>
      </trkpt>
      <trkpt lat="34.855510" lon="-114.887050">
        <ele>792.057</ele>
        <time>2018-12-28T11:26:33Z</time>
      </trkpt>
      <trkpt lat="34.855440" lon="-114.887420">
        <ele>791.528</ele>
        <time>2018-12-28T11:26:53Z</time>
      </trkpt>
      <trkpt lat="34.855380" lon="-114.887980">
        <ele>791.371</ele>
        <time>2018-12-28T11:27:13Z</time>
      </trkpt>
      <trkpt lat="34.855340" lon="-114.888380">
        <ele>790.371</ele>
        <time>2018-12-28T11:27:33Z</time>
      </trkpt>
      <trkpt lat="34.855300" lon="-114.888780">
        <ele>786.731</ele>
        <time>2018-12-28T11:27:53Z</time>
      </trkpt>
      <trkpt lat="34.855280" lon="-114.889180">
        <ele>785.561</ele>
        <time>2018-12-28T11:28:13Z</time>
      </trkpt>
      <trkpt lat="34.855270" lon="-114.889500">
        <ele>784.707</ele>
        <time>2018-12-28T11:28:33Z</time>
      </trkpt>
      <trkpt lat="34.855270" lon="-114.889800">
        <ele>784.108</ele>
        <time>2018-12-28T11:28:53Z</time>
      </trkpt>
      <trkpt lat="34.855280" lon="-114.890100">
        <ele>783.576</ele>
        <time>2018-12-28T11:29:13Z</time>
      </trkpt>
      <trkpt lat="34.855300" lon="-114.890550">
        <ele>782.814</ele>
        <time>2018-12-28T11:29:33Z</time>
      </trkpt>
      <trkpt lat="34.855320" lon="-114.890990">
        <ele>781.799</ele>
        <time>2018-12-28T11:29:53Z</time>
      </trkpt>
      <trkpt lat="34.855370" lon="-114.891550">
        <ele>781.140</ele>
        <time>2018-12-28T11:30:13Z</time>
      </trkpt>
      <trkpt lat="34.855420" lon="-114.892080">
        <ele>780.695</ele>
        <time>2018-12-28T11:30:33Z</time>
      </trkpt>
      <trkpt lat="34.855500" lon="-114.892920">
        <ele>775.986</ele>
        <time>2018-12-28T11:30:53Z</time>
      </trkpt>
      <trkpt lat="34.855560" lon="-114.893450">
        <ele>774.069</ele>
        <time>2018-12-28T11:31:13Z</time>
      </trkpt>
      <trkpt lat="34.855600" lon="-114.893870">
        <ele>772.889</ele>
        <time>2018-12-28T11:31:33Z</time>
      </trkpt>
      <trkpt lat="34.855670" lon="-114.894660">
        <ele>771.039</ele>
        <time>2018-12-28T11:31:53Z</time>
      </trkpt>
      <trkpt lat="34.855730" lon="-114.895110">
        <ele>770.701</ele>
        <time>2018-12-28T11:32:13Z</time>
      </trkpt>
      <trkpt lat="34.855750" lon="-114.895330">
        <ele>770.521</ele>
        <time>2018-12-28T11:32:33Z</time>
      </trkpt>
      <trkpt lat="34.855780" lon="-114.895580">
        <ele>769.508</ele>
        <time>2018-12-28T11:32:53Z</time>
      </trkpt>
      <trkpt lat="34.855810" lon="-114.895870">
        <ele>767.466</ele>
        <time>2018-12-28T11:33:13Z</time>
      </trkpt>
      <trkpt lat="34.855870" lon="-114.896510">
        <ele>764.414</ele>
        <time>2018-12-28T11:33:33Z</time>
      </trkpt>
      <trkpt lat="34.855950" lon="-114.897330">
        <ele>762.059</ele>
        <time>2018-12-28T11:33:53Z</time>
      </trkpt>
      <trkpt lat="34.856100" lon="-114.898700">
        <ele>760.830</ele>
        <time>2018-12-28T11:34:13Z</time>
      </trkpt>
      <trkpt lat="34.856190" lon="-114.899520">
        <ele>757.935</ele>
        <time>2018-12-28T11:34:33Z</time>
      </trkpt>
      <trkpt lat="34.856290" lon="-114.900470">
        <ele>754.696</ele>
        <time>2018-12-28T11:34:53Z</time>
      </trkpt>
      <trkpt lat="34.856370" lon="-114.901240">
        <ele>753.119</ele>
        <time>2018-12-28T11:35:13Z</time>
      </trkpt>
      <trkpt lat="34.856470" lon="-114.902180">
        <ele>752.099</ele>
        <time>2018-12-28T11:35:33Z</time>
      </trkpt>
      <trkpt lat="34.856580" lon="-114.903160">
        <ele>750.693</ele>
        <time>2018-12-28T11:35:53Z</time>
      </trkpt>
      <trkpt lat="34.856650" lon="-114.903780">
        <ele>749.965</ele>
        <time>2018-12-28T11:36:13Z</time>
      </trkpt>
      <trkpt lat="34.856780" lon="-114.905040">
        <ele>744.321</ele>
        <time>2018-12-28T11:36:33Z</time>
      </trkpt>
      <trkpt lat="34.856810" lon="-114.905390">
        <ele>743.308</ele>
        <time>2018-12-28T11:36:53Z</time>
      </trkpt>
      <trkpt lat="34.856860" lon="-114.905860">
        <ele>741.862</ele>
        <time>2018-12-28T11:37:13Z</time>
      </trkpt>
      <trkpt lat="34.857260" lon="-114.909710">
        <ele>732.360</ele>
        <time>2018-12-28T11:37:33Z</time>
      </trkpt>
      <trkpt lat="34.857560" lon="-114.912450">
        <ele>730.955</ele>
        <time>2018-12-28T11:37:53Z</time>
      </trkpt>
      <trkpt lat="34.857690" lon="-114.913800">
        <ele>723.236</ele>
        <time>2018-12-28T11:38:13Z</time>
      </trkpt>
      <trkpt lat="34.858040" lon="-114.916920">
        <ele>721.541</ele>
        <time>2018-12-28T11:38:33Z</time>
      </trkpt>
      <trkpt lat="34.858160" lon="-114.918030">
        <ele>719.172</ele>
        <time>2018-12-28T11:38:53Z</time>
      </trkpt>
      <trkpt lat="34.858240" lon="-114.918840">
        <ele>716.015</ele>
        <time>2018-12-28T11:39:13Z</time>
      </trkpt>
      <trkpt lat="34.858280" lon="-114.919250">
        <ele>714.815</ele>
        <time>2018-12-28T11:39:33Z</time>
      </trkpt>
      <trkpt lat="34.858320" lon="-114.919930">
        <ele>712.066</ele>
        <time>2018-12-28T11:39:53Z</time>
      </trkpt>
      <trkpt lat="34.858340" lon="-114.920430">
        <ele>711.529</ele>
        <time>2018-12-28T11:40:13Z</time>
      </trkpt>
      <trkpt lat="34.858350" lon="-114.920730">
        <ele>710.721</ele>
        <time>2018-12-28T11:40:33Z</time>
      </trkpt>
      <trkpt lat="34.858350" lon="-114.920970">
        <ele>710.708</ele>
        <time>2018-12-28T11:40:53Z</time>
      </trkpt>
      <trkpt lat="34.858340" lon="-114.921470">
        <ele>710.729</ele>
        <time>2018-12-28T11:41:13Z</time>
      </trkpt>
      <trkpt lat="34.858320" lon="-114.921930">
        <ele>709.947</ele>
        <time>2018-12-28T11:41:33Z</time>
      </trkpt>
      <trkpt lat="34.858290" lon="-114.922530">
        <ele>707.992</ele>
        <time>2018-12-28T11:41:53Z</time>
      </trkpt>
      <trkpt lat="34.858260" lon="-114.922780">
        <ele>707.063</ele>
        <time>2018-12-28T11:42:13Z</time>
      </trkpt>
      <trkpt lat="34.858240" lon="-114.923000">
        <ele>706.318</ele>
        <time>2018-12-28T11:42:33Z</time>
      </trkpt>
      <trkpt lat="34.858200" lon="-114.923350">
        <ele>705.269</ele>
        <time>2018-12-28T11:42:53Z</time>
      </trkpt>
      <trkpt lat="34.858130" lon="-114.923890">
        <ele>703.792</ele>
        <time>2018-12-28T11:43:13Z</time>
      </trkpt>
      <trkpt lat="34.858070" lon="-114.924250">
        <ele>702.932</ele>
        <time>2018-12-28T11:43:33Z</time>
      </trkpt>
      <trkpt lat="34.857900" lon="-114.925180">
        <ele>701.223</ele>
        <time>2018-12-28T11:43:53Z</time>
      </trkpt>
      <trkpt lat="34.857890" lon="-114.925230">
        <ele>701.183</ele>
        <time>2018-12-28T11:44:13Z</time>
      </trkpt>
      <trkpt lat="34.857830" lon="-114.925510">
        <ele>700.711</ele>
        <time>2018-12-28T11:44:33Z</time>
      </trkpt>
      <trkpt lat="34.857780" lon="-114.925700">
        <ele>700.508</ele>
        <time>2018-12-28T11:44:53Z</time>
      </trkpt>
      <trkpt lat="34.857720" lon="-114.925960">
        <ele>699.615</ele>
        <time>2018-12-28T11:45:13Z</time>
      </trkpt>
      <trkpt lat="34.857590" lon="-114.926420">
        <ele>698.053</ele>
        <time>2018-12-28T11:45:33Z</time>
      </trkpt>
      <trkpt lat="34.857170" lon="-114.927930">
        <ele>694.568</ele>
        <time>2018-12-28T11:45:53Z</time>
      </trkpt>
      <trkpt lat="34.856710" lon="-114.929560">
        <ele>690.829</ele>
        <time>2018-12-28T11:46:13Z</time>
      </trkpt>
      <trkpt lat="34.856510" lon="-114.930270">
        <ele>690.684</ele>
        <time>2018-12-28T11:46:33Z</time>
      </trkpt>
      <trkpt lat="34.855930" lon="-114.932360">
        <ele>682.775</ele>
        <time>2018-12-28T11:46:53Z</time>
      </trkpt>
      <trkpt lat="34.854500" lon="-114.937500">
        <ele>671.698</ele>
        <time>2018-12-28T11:47:13Z</time>
      </trkpt>
      <trkpt lat="34.854180" lon="-114.938670">
        <ele>670.738</ele>
        <time>2018-12-28T11:47:33Z</time>
      </trkpt>
      <trkpt lat="34.854050" lon="-114.939140">
        <ele>670.713</ele>
        <time>2018-12-28T11:47:53Z</time>
      </trkpt>
      <trkpt lat="34.853760" lon="-114.940160">
        <ele>668.443</ele>
        <time>2018-12-28T11:48:13Z</time>
      </trkpt>
      <trkpt lat="34.853070" lon="-114.942660">
        <ele>663.507</ele>
        <time>2018-12-28T11:48:33Z</time>
      </trkpt>
      <trkpt lat="34.852480" lon="-114.944750">
        <ele>660.708</ele>
        <time>2018-12-28T11:48:53Z</time>
      </trkpt>
      <trkpt lat="34.851780" lon="-114.947260">
        <ele>656.164</ele>
        <time>2018-12-28T11:49:13Z</time>
      </trkpt>
      <trkpt lat="34.851390" lon="-114.948660">
        <ele>653.262</ele>
        <time>2018-12-28T11:49:33Z</time>
      </trkpt>
      <trkpt lat="34.850280" lon="-114.952690">
        <ele>648.077</ele>
        <time>2018-12-28T11:49:53Z</time>
      </trkpt>
      <trkpt lat="34.848010" lon="-114.960790">
        <ele>636.518</ele>
        <time>2018-12-28T11:50:13Z</time>
      </trkpt>
      <trkpt lat="34.847650" lon="-114.962090">
        <ele>636.163</ele>
        <time>2018-12-28T11:50:33Z</time>
      </trkpt>
      <trkpt lat="34.847110" lon="-114.964010">
        <ele>637.024</ele>
        <time>2018-12-28T11:50:53Z</time>
      </trkpt>
      <trkpt lat="34.846870" lon="-114.964890">
        <ele>637.737</ele>
        <time>2018-12-28T11:51:13Z</time>
      </trkpt>
      <trkpt lat="34.846820" lon="-114.965120">
        <ele>638.047</ele>
        <time>2018-12-28T11:51:33Z</time>
      </trkpt>
      <trkpt lat="34.846750" lon="-114.965350">
        <ele>638.249</ele>
        <time>2018-12-28T11:51:53Z</time>
      </trkpt>
      <trkpt lat="34.846310" lon="-114.966920">
        <ele>639.802</ele>
        <time>2018-12-28T11:52:13Z</time>
      </trkpt>
      <trkpt lat="34.845620" lon="-114.969430">
        <ele>645.022</ele>
        <time>2018-12-28T11:52:33Z</time>
      </trkpt>
      <trkpt lat="34.845370" lon="-114.970290">
        <ele>650.208</ele>
        <time>2018-12-28T11:52:53Z</time>
      </trkpt>
      <trkpt lat="34.845370" lon="-114.970300">
        <ele>650.297</ele>
        <time>2018-12-28T11:53:13Z</time>
      </trkpt>
      <trkpt lat="34.845290" lon="-114.970570">
        <ele>650.045</ele>
        <time>2018-12-28T11:53:33Z</time>
      </trkpt>
      <trkpt lat="34.845060" lon="-114.971420">
        <ele>648.410</ele>
        <time>2018-12-28T11:53:53Z</time>
      </trkpt>
      <trkpt lat="34.844330" lon="-114.974030">
        <ele>650.971</ele>
        <time>2018-12-28T11:54:13Z</time>
      </trkpt>
      <trkpt lat="34.844080" lon="-114.974920">
        <ele>651.866</ele>
        <time>2018-12-28T11:54:33Z</time>
      </trkpt>
      <trkpt lat="34.843980" lon="-114.975290">
        <ele>652.197</ele>
        <time>2018-12-28T11:54:53Z</time>
      </trkpt>
      <trkpt lat="34.843900" lon="-114.975570">
        <ele>652.410</ele>
        <time>2018-12-28T11:55:13Z</time>
      </trkpt>
      <trkpt lat="34.842830" lon="-114.979430">
        <ele>660.350</ele>
        <time>2018-12-28T11:55:33Z</time>
      </trkpt>
      <trkpt lat="34.840860" lon="-114.986470">
        <ele>673.267</ele>
        <time>2018-12-28T11:55:53Z</time>
      </trkpt>
      <trkpt lat="34.839030" lon="-114.993080">
        <ele>690.981</ele>
        <time>2018-12-28T11:56:13Z</time>
      </trkpt>
      <trkpt lat="34.832260" lon="-115.017320">
        <ele>760.719</ele>
        <time>2018-12-28T11:56:33Z</time>
      </trkpt>
      <trkpt lat="34.831580" lon="-115.019760">
        <ele>763.808</ele>
        <time>2018-12-28T11:56:53Z</time>
      </trkpt>
      <trkpt lat="34.831160" lon="-115.021280">
        <ele>766.559</ele>
        <time>2018-12-28T11:57:13Z</time>
      </trkpt>
      <trkpt lat="34.830970" lon="-115.021950">
        <ele>767.837</ele>
        <time>2018-12-28T11:57:33Z</time>
      </trkpt>
      <trkpt lat="34.830390" lon="-115.024020">
        <ele>772.022</ele>
        <time>2018-12-28T11:57:53Z</time>
      </trkpt>
      <trkpt lat="34.830200" lon="-115.024760">
        <ele>774.153</ele>
        <time>2018-12-28T11:58:13Z</time>
      </trkpt>
      <trkpt lat="34.830040" lon="-115.025360">
        <ele>776.018</ele>
        <time>2018-12-28T11:58:33Z</time>
      </trkpt>
      <trkpt lat="34.829910" lon="-115.025870">
        <ele>777.699</ele>
        <time>2018-12-28T11:58:53Z</time>
      </trkpt>
      <trkpt lat="34.829860" lon="-115.026150">
        <ele>778.232</ele>
        <time>2018-12-28T11:59:13Z</time>
      </trkpt>
      <trkpt lat="34.829800" lon="-115.026500">
        <ele>779.172</ele>
        <time>2018-12-28T11:59:33Z</time>
      </trkpt>
      <trkpt lat="34.829720" lon="-115.027040">
        <ele>780.982</ele>
        <time>2018-12-28T11:59:53Z</time>
      </trkpt>
      <trkpt lat="34.829660" lon="-115.027380">
        <ele>781.543</ele>
        <time>2018-12-28T12:00:13Z</time>
      </trkpt>
      <trkpt lat="34.829590" lon="-115.027930">
        <ele>783.917</ele>
        <time>2018-12-28T12:00:33Z</time>
      </trkpt>
      <trkpt lat="34.829560" lon="-115.028340">
        <ele>785.908</ele>
        <time>2018-12-28T12:00:53Z</time>
      </trkpt>
      <trkpt lat="34.829530" lon="-115.028820">
        <ele>787.811</ele>
        <time>2018-12-28T12:01:13Z</time>
      </trkpt>
      <trkpt lat="34.829510" lon="-115.029400">
        <ele>789.769</ele>
        <time>2018-12-28T12:01:33Z</time>
      </trkpt>
      <trkpt lat="34.829500" lon="-115.030020">
        <ele>791.164</ele>
        <time>2018-12-28T12:01:53Z</time>
      </trkpt>
      <trkpt lat="34.829520" lon="-115.030650">
        <ele>794.035</ele>
        <time>2018-12-28T12:02:13Z</time>
      </trkpt>
      <trkpt lat="34.829550" lon="-115.031160">
        <ele>797.140</ele>
        <time>2018-12-28T12:02:33Z</time>
      </trkpt>
      <trkpt lat="34.829650" lon="-115.032520">
        <ele>799.821</ele>
        <time>2018-12-28T12:02:53Z</time>
      </trkpt>
      <trkpt lat="34.830580" lon="-115.044440">
        <ele>823.384</ele>
        <time>2018-12-28T12:03:13Z</time>
      </trkpt>
      <trkpt lat="34.830610" lon="-115.044840">
        <ele>823.524</ele>
        <time>2018-12-28T12:03:33Z</time>
      </trkpt>
      <trkpt lat="34.830690" lon="-115.045880">
        <ele>828.897</ele>
        <time>2018-12-28T12:03:53Z</time>
      </trkpt>
      <trkpt lat="34.830740" lon="-115.046710">
        <ele>831.223</ele>
        <time>2018-12-28T12:04:13Z</time>
      </trkpt>
      <trkpt lat="34.830760" lon="-115.047570">
        <ele>833.525</ele>
        <time>2018-12-28T12:04:33Z</time>
      </trkpt>
      <trkpt lat="34.830750" lon="-115.047960">
        <ele>834.208</ele>
        <time>2018-12-28T12:04:53Z</time>
      </trkpt>
      <trkpt lat="34.830740" lon="-115.048500">
        <ele>835.772</ele>
        <time>2018-12-28T12:05:13Z</time>
      </trkpt>
      <trkpt lat="34.830720" lon="-115.048710">
        <ele>836.140</ele>
        <time>2018-12-28T12:05:33Z</time>
      </trkpt>
      <trkpt lat="34.830690" lon="-115.049100">
        <ele>837.385</ele>
        <time>2018-12-28T12:05:53Z</time>
      </trkpt>
      <trkpt lat="34.830650" lon="-115.049580">
        <ele>838.636</ele>
        <time>2018-12-28T12:06:13Z</time>
      </trkpt>
      <trkpt lat="34.830620" lon="-115.049880">
        <ele>839.221</ele>
        <time>2018-12-28T12:06:33Z</time>
      </trkpt>
      <trkpt lat="34.830580" lon="-115.050210">
        <ele>839.712</ele>
        <time>2018-12-28T12:06:53Z</time>
      </trkpt>
      <trkpt lat="34.830500" lon="-115.050690">
        <ele>840.215</ele>
        <time>2018-12-28T12:07:13Z</time>
      </trkpt>
      <trkpt lat="34.830450" lon="-115.051000">
        <ele>840.615</ele>
        <time>2018-12-28T12:07:33Z</time>
      </trkpt>
      <trkpt lat="34.830440" lon="-115.051070">
        <ele>840.632</ele>
        <time>2018-12-28T12:07:53Z</time>
      </trkpt>
      <trkpt lat="34.830430" lon="-115.051090">
        <ele>840.692</ele>
        <time>2018-12-28T12:08:13Z</time>
      </trkpt>
      <trkpt lat="34.830030" lon="-115.053100">
        <ele>840.611</ele>
        <time>2018-12-28T12:08:33Z</time>
      </trkpt>
      <trkpt lat="34.829390" lon="-115.056280">
        <ele>838.708</ele>
        <time>2018-12-28T12:08:53Z</time>
      </trkpt>
      <trkpt lat="34.829190" lon="-115.057260">
        <ele>839.196</ele>
        <time>2018-12-28T12:09:13Z</time>
      </trkpt>
      <trkpt lat="34.829000" lon="-115.058250">
        <ele>839.034</ele>
        <time>2018-12-28T12:09:33Z</time>
      </trkpt>
      <trkpt lat="34.828940" lon="-115.058600">
        <ele>838.689</ele>
        <time>2018-12-28T12:09:53Z</time>
      </trkpt>
      <trkpt lat="34.828890" lon="-115.058880">
        <ele>838.310</ele>
        <time>2018-12-28T12:10:13Z</time>
      </trkpt>
      <trkpt lat="34.828830" lon="-115.059280">
        <ele>835.835</ele>
        <time>2018-12-28T12:10:33Z</time>
      </trkpt>
      <trkpt lat="34.828650" lon="-115.060670">
        <ele>830.986</ele>
        <time>2018-12-28T12:10:53Z</time>
      </trkpt>
      <trkpt lat="34.828590" lon="-115.061130">
        <ele>830.659</ele>
        <time>2018-12-28T12:11:13Z</time>
      </trkpt>
      <trkpt lat="34.828430" lon="-115.062460">
        <ele>826.649</ele>
        <time>2018-12-28T12:11:33Z</time>
      </trkpt>
      <trkpt lat="34.828140" lon="-115.064770">
        <ele>822.759</ele>
        <time>2018-12-28T12:11:53Z</time>
      </trkpt>
      <trkpt lat="34.827680" lon="-115.068400">
        <ele>817.003</ele>
        <time>2018-12-28T12:12:13Z</time>
      </trkpt>
      <trkpt lat="34.827150" lon="-115.072710">
        <ele>811.223</ele>
        <time>2018-12-28T12:12:33Z</time>
      </trkpt>
      <trkpt lat="34.826930" lon="-115.074490">
        <ele>809.108</ele>
        <time>2018-12-28T12:12:53Z</time>
      </trkpt>
      <trkpt lat="34.826230" lon="-115.080140">
        <ele>796.238</ele>
        <time>2018-12-28T12:13:13Z</time>
      </trkpt>
      <trkpt lat="34.826140" lon="-115.080820">
        <ele>793.646</ele>
        <time>2018-12-28T12:13:33Z</time>
      </trkpt>
      <trkpt lat="34.825420" lon="-115.086610">
        <ele>783.771</ele>
        <time>2018-12-28T12:13:53Z</time>
      </trkpt>
      <trkpt lat="34.824780" lon="-115.091770">
        <ele>777.772</ele>
        <time>2018-12-28T12:14:13Z</time>
      </trkpt>
      <trkpt lat="34.824500" lon="-115.094040">
        <ele>772.167</ele>
        <time>2018-12-28T12:14:33Z</time>
      </trkpt>
      <trkpt lat="34.824300" lon="-115.095560">
        <ele>771.028</ele>
        <time>2018-12-28T12:14:53Z</time>
      </trkpt>
      <trkpt lat="34.824210" lon="-115.096310">
        <ele>770.821</ele>
        <time>2018-12-28T12:15:13Z</time>
      </trkpt>
      <trkpt lat="34.823580" lon="-115.101430">
        <ele>762.251</ele>
        <time>2018-12-28T12:15:33Z</time>
      </trkpt>
      <trkpt lat="34.823360" lon="-115.103190">
        <ele>761.146</ele>
        <time>2018-12-28T12:15:53Z</time>
      </trkpt>
      <trkpt lat="34.823280" lon="-115.103830">
        <ele>760.888</ele>
        <time>2018-12-28T12:16:13Z</time>
      </trkpt>
      <trkpt lat="34.823150" lon="-115.104910">
        <ele>759.916</ele>
        <time>2018-12-28T12:16:33Z</time>
      </trkpt>
      <trkpt lat="34.822950" lon="-115.106500">
        <ele>754.508</ele>
        <time>2018-12-28T12:16:53Z</time>
      </trkpt>
      <trkpt lat="34.822200" lon="-115.112690">
        <ele>744.317</ele>
        <time>2018-12-28T12:17:13Z</time>
      </trkpt>
      <trkpt lat="34.819700" lon="-115.132830">
        <ele>710.235</ele>
        <time>2018-12-28T12:17:33Z</time>
      </trkpt>
      <trkpt lat="34.816420" lon="-115.159170">
        <ele>667.140</ele>
        <time>2018-12-28T12:17:53Z</time>
      </trkpt>
      <trkpt lat="34.815640" lon="-115.165480">
        <ele>659.261</ele>
        <time>2018-12-28T12:18:13Z</time>
      </trkpt>
      <trkpt lat="34.815450" lon="-115.166910">
        <ele>655.926</ele>
        <time>2018-12-28T12:18:33Z</time>
      </trkpt>
      <trkpt lat="34.815220" lon="-115.168760">
        <ele>655.777</ele>
        <time>2018-12-28T12:18:53Z</time>
      </trkpt>
      <trkpt lat="34.815010" lon="-115.170370">
        <ele>651.020</ele>
        <time>2018-12-28T12:19:13Z</time>
      </trkpt>
      <trkpt lat="34.813460" lon="-115.182840">
        <ele>640.970</ele>
        <time>2018-12-28T12:19:33Z</time>
      </trkpt>
      <trkpt lat="34.813400" lon="-115.183280">
        <ele>641.051</ele>
        <time>2018-12-28T12:19:53Z</time>
      </trkpt>
      <trkpt lat="34.813310" lon="-115.184020">
        <ele>640.601</ele>
        <time>2018-12-28T12:20:13Z</time>
      </trkpt>
      <trkpt lat="34.813240" lon="-115.184600">
        <ele>640.211</ele>
        <time>2018-12-28T12:20:33Z</time>
      </trkpt>
      <trkpt lat="34.813010" lon="-115.186420">
        <ele>636.208</ele>
        <time>2018-12-28T12:20:53Z</time>
      </trkpt>
      <trkpt lat="34.812600" lon="-115.189700">
        <ele>629.928</ele>
        <time>2018-12-28T12:21:13Z</time>
      </trkpt>
      <trkpt lat="34.812540" lon="-115.190190">
        <ele>626.696</ele>
        <time>2018-12-28T12:21:33Z</time>
      </trkpt>
      <trkpt lat="34.812540" lon="-115.190200">
        <ele>626.661</ele>
        <time>2018-12-28T12:21:53Z</time>
      </trkpt>
      <trkpt lat="34.812490" lon="-115.190550">
        <ele>626.272</ele>
        <time>2018-12-28T12:22:13Z</time>
      </trkpt>
      <trkpt lat="34.811940" lon="-115.194990">
        <ele>620.867</ele>
        <time>2018-12-28T12:22:33Z</time>
      </trkpt>
      <trkpt lat="34.811830" lon="-115.195850">
        <ele>620.898</ele>
        <time>2018-12-28T12:22:53Z</time>
      </trkpt>
      <trkpt lat="34.811680" lon="-115.197220">
        <ele>619.011</ele>
        <time>2018-12-28T12:23:13Z</time>
      </trkpt>
      <trkpt lat="34.811620" lon="-115.197750">
        <ele>617.471</ele>
        <time>2018-12-28T12:23:33Z</time>
      </trkpt>
      <trkpt lat="34.811320" lon="-115.200670">
        <ele>615.782</ele>
        <time>2018-12-28T12:23:53Z</time>
      </trkpt>
      <trkpt lat="34.811220" lon="-115.201680">
        <ele>614.643</ele>
        <time>2018-12-28T12:24:13Z</time>
      </trkpt>
      <trkpt lat="34.811210" lon="-115.201750">
        <ele>614.317</ele>
        <time>2018-12-28T12:24:33Z</time>
      </trkpt>
      <trkpt lat="34.811160" lon="-115.202260">
        <ele>612.708</ele>
        <time>2018-12-28T12:24:53Z</time>
      </trkpt>
      <trkpt lat="34.811090" lon="-115.202930">
        <ele>611.481</ele>
        <time>2018-12-28T12:25:13Z</time>
      </trkpt>
      <trkpt lat="34.810880" lon="-115.205180">
        <ele>610.919</ele>
        <time>2018-12-28T12:25:33Z</time>
      </trkpt>
      <trkpt lat="34.810820" lon="-115.205790">
        <ele>610.874</ele>
        <time>2018-12-28T12:25:53Z</time>
      </trkpt>
      <trkpt lat="34.810810" lon="-115.205850">
        <ele>610.885</ele>
        <time>2018-12-28T12:26:13Z</time>
      </trkpt>
      <trkpt lat="34.810740" lon="-115.206740">
        <ele>610.860</ele>
        <time>2018-12-28T12:26:33Z</time>
      </trkpt>
      <trkpt lat="34.810690" lon="-115.207230">
        <ele>610.831</ele>
        <time>2018-12-28T12:26:53Z</time>
      </trkpt>
      <trkpt lat="34.810600" lon="-115.208340">
        <ele>610.834</ele>
        <time>2018-12-28T12:27:13Z</time>
      </trkpt>
      <trkpt lat="34.810360" lon="-115.211240">
        <ele>605.544</ele>
        <time>2018-12-28T12:27:33Z</time>
      </trkpt>
      <trkpt lat="34.810010" lon="-115.215430">
        <ele>605.737</ele>
        <time>2018-12-28T12:27:53Z</time>
      </trkpt>
      <trkpt lat="34.809960" lon="-115.216040">
        <ele>605.549</ele>
        <time>2018-12-28T12:28:13Z</time>
      </trkpt>
      <trkpt lat="34.809840" lon="-115.217400">
        <ele>603.013</ele>
        <time>2018-12-28T12:28:33Z</time>
      </trkpt>
      <trkpt lat="34.809820" lon="-115.217640">
        <ele>602.908</ele>
        <time>2018-12-28T12:28:53Z</time>
      </trkpt>
      <trkpt lat="34.809500" lon="-115.221560">
        <ele>601.156</ele>
        <time>2018-12-28T12:29:13Z</time>
      </trkpt>
      <trkpt lat="34.809430" lon="-115.222400">
        <ele>600.894</ele>
        <time>2018-12-28T12:29:33Z</time>
      </trkpt>
      <trkpt lat="34.809370" lon="-115.223090">
        <ele>600.879</ele>
        <time>2018-12-28T12:29:53Z</time>
      </trkpt>
      <trkpt lat="34.809290" lon="-115.224080">
        <ele>600.810</ele>
        <time>2018-12-28T12:30:13Z</time>
      </trkpt>
      <trkpt lat="34.808780" lon="-115.230130">
        <ele>596.985</ele>
        <time>2018-12-28T12:30:33Z</time>
      </trkpt>
      <trkpt lat="34.808720" lon="-115.230800">
        <ele>596.846</ele>
        <time>2018-12-28T12:30:53Z</time>
      </trkpt>
      <trkpt lat="34.808630" lon="-115.231870">
        <ele>597.129</ele>
        <time>2018-12-28T12:31:13Z</time>
      </trkpt>
      <trkpt lat="34.807150" lon="-115.249430">
        <ele>595.859</ele>
        <time>2018-12-28T12:31:33Z</time>
      </trkpt>
      <trkpt lat="34.807050" lon="-115.250580">
        <ele>595.735</ele>
        <time>2018-12-28T12:31:53Z</time>
      </trkpt>
      <trkpt lat="34.806840" lon="-115.253030">
        <ele>595.886</ele>
        <time>2018-12-28T12:32:13Z</time>
      </trkpt>
      <trkpt lat="34.806720" lon="-115.254450">
        <ele>595.714</ele>
        <time>2018-12-28T12:32:33Z</time>
      </trkpt>
      <trkpt lat="34.806630" lon="-115.255570">
        <ele>594.108</ele>
        <time>2018-12-28T12:32:53Z</time>
      </trkpt>
      <trkpt lat="34.806520" lon="-115.256830">
        <ele>595.756</ele>
        <time>2018-12-28T12:33:13Z</time>
      </trkpt>
      <trkpt lat="34.806430" lon="-115.257920">
        <ele>595.764</ele>
        <time>2018-12-28T12:33:33Z</time>
      </trkpt>
      <trkpt lat="34.806350" lon="-115.258860">
        <ele>595.839</ele>
        <time>2018-12-28T12:33:53Z</time>
      </trkpt>
      <trkpt lat="34.806300" lon="-115.259490">
        <ele>596.090</ele>
        <time>2018-12-28T12:34:13Z</time>
      </trkpt>
      <trkpt lat="34.806210" lon="-115.260440">
        <ele>596.135</ele>
        <time>2018-12-28T12:34:33Z</time>
      </trkpt>
      <trkpt lat="34.806120" lon="-115.261560">
        <ele>596.716</ele>
        <time>2018-12-28T12:34:53Z</time>
      </trkpt>
      <trkpt lat="34.805660" lon="-115.267020">
        <ele>597.219</ele>
        <time>2018-12-28T12:35:13Z</time>
      </trkpt>
      <trkpt lat="34.805410" lon="-115.269960">
        <ele>598.349</ele>
        <time>2018-12-28T12:35:33Z</time>
      </trkpt>
      <trkpt lat="34.805310" lon="-115.271240">
        <ele>599.354</ele>
        <time>2018-12-28T12:35:53Z</time>
      </trkpt>
      <trkpt lat="34.805090" lon="-115.273780">
        <ele>600.756</ele>
        <time>2018-12-28T12:36:13Z</time>
      </trkpt>
      <trkpt lat="34.804960" lon="-115.275240">
        <ele>600.911</ele>
        <time>2018-12-28T12:36:33Z</time>
      </trkpt>
      <trkpt lat="34.804760" lon="-115.277650">
        <ele>600.508</ele>
        <time>2018-12-28T12:36:53Z</time>
      </trkpt>
      <trkpt lat="34.804240" lon="-115.283830">
        <ele>601.088</ele>
        <time>2018-12-28T12:37:13Z</time>
      </trkpt>
      <trkpt lat="34.804200" lon="-115.284290">
        <ele>601.076</ele>
        <time>2018-12-28T12:37:33Z</time>
      </trkpt>
      <trkpt lat="34.804120" lon="-115.285240">
        <ele>601.041</ele>
        <time>2018-12-28T12:37:53Z</time>
      </trkpt>
      <trkpt lat="34.803820" lon="-115.288750">
        <ele>602.172</ele>
        <time>2018-12-28T12:38:13Z</time>
      </trkpt>
      <trkpt lat="34.803730" lon="-115.289850">
        <ele>602.377</ele>
        <time>2018-12-28T12:38:33Z</time>
      </trkpt>
      <trkpt lat="34.803620" lon="-115.291110">
        <ele>602.098</ele>
        <time>2018-12-28T12:38:53Z</time>
      </trkpt>
      <trkpt lat="34.803490" lon="-115.292670">
        <ele>602.641</ele>
        <time>2018-12-28T12:39:13Z</time>
      </trkpt>
      <trkpt lat="34.803380" lon="-115.293960">
        <ele>605.781</ele>
        <time>2018-12-28T12:39:33Z</time>
      </trkpt>
      <trkpt lat="34.803320" lon="-115.294750">
        <ele>605.755</ele>
        <time>2018-12-28T12:39:53Z</time>
      </trkpt>
      <trkpt lat="34.803270" lon="-115.295270">
        <ele>605.707</ele>
        <time>2018-12-28T12:40:13Z</time>
      </trkpt>
      <trkpt lat="34.803190" lon="-115.295910">
        <ele>605.817</ele>
        <time>2018-12-28T12:40:33Z</time>
      </trkpt>
      <trkpt lat="34.802470" lon="-115.304180">
        <ele>607.108</ele>
        <time>2018-12-28T12:40:53Z</time>
      </trkpt>
      <trkpt lat="34.802180" lon="-115.307840">
        <ele>607.788</ele>
        <time>2018-12-28T12:41:13Z</time>
      </trkpt>
      <trkpt lat="34.801800" lon="-115.312310">
        <ele>610.876</ele>
        <time>2018-12-28T12:41:33Z</time>
      </trkpt>
      <trkpt lat="34.801690" lon="-115.313540">
        <ele>612.241</ele>
        <time>2018-12-28T12:41:53Z</time>
      </trkpt>
      <trkpt lat="34.801640" lon="-115.314020">
        <ele>612.792</ele>
        <time>2018-12-28T12:42:13Z</time>
      </trkpt>
      <trkpt lat="34.801560" lon="-115.315000">
        <ele>614.037</ele>
        <time>2018-12-28T12:42:33Z</time>
      </trkpt>
      <trkpt lat="34.801520" lon="-115.315390">
        <ele>614.628</ele>
        <time>2018-12-28T12:42:53Z</time>
      </trkpt>
      <trkpt lat="34.801460" lon="-115.316260">
        <ele>615.861</ele>
        <time>2018-12-28T12:43:13Z</time>
      </trkpt>
      <trkpt lat="34.801400" lon="-115.317470">
        <ele>616.561</ele>
        <time>2018-12-28T12:43:33Z</time>
      </trkpt>
      <trkpt lat="34.801370" lon="-115.318380">
        <ele>617.611</ele>
        <time>2018-12-28T12:43:53Z</time>
      </trkpt>
      <trkpt lat="34.801370" lon="-115.319900">
        <ele>620.621</ele>
        <time>2018-12-28T12:44:13Z</time>
      </trkpt>
      <trkpt lat="34.801380" lon="-115.320510">
        <ele>621.203</ele>
        <time>2018-12-28T12:44:33Z</time>
      </trkpt>
      <trkpt lat="34.801390" lon="-115.320630">
        <ele>621.608</ele>
        <time>2018-12-28T12:44:53Z</time>
      </trkpt>
      <trkpt lat="34.801390" lon="-115.320660">
        <ele>621.744</ele>
        <time>2018-12-28T12:45:13Z</time>
      </trkpt>
      <trkpt lat="34.801440" lon="-115.321830">
        <ele>620.972</ele>
        <time>2018-12-28T12:45:33Z</time>
      </trkpt>
      <trkpt lat="34.801550" lon="-115.323160">
        <ele>621.247</ele>
        <time>2018-12-28T12:45:53Z</time>
      </trkpt>
      <trkpt lat="34.801760" lon="-115.325490">
        <ele>625.878</ele>
        <time>2018-12-28T12:46:13Z</time>
      </trkpt>
      <trkpt lat="34.801900" lon="-115.326890">
        <ele>625.873</ele>
        <time>2018-12-28T12:46:33Z</time>
      </trkpt>
      <trkpt lat="34.802020" lon="-115.327980">
        <ele>626.484</ele>
        <time>2018-12-28T12:46:53Z</time>
      </trkpt>
      <trkpt lat="34.802200" lon="-115.329740">
        <ele>626.257</ele>
        <time>2018-12-28T12:47:13Z</time>
      </trkpt>
      <trkpt lat="34.802560" lon="-115.333070">
        <ele>635.677</ele>
        <time>2018-12-28T12:47:33Z</time>
      </trkpt>
      <trkpt lat="34.803460" lon="-115.341790">
        <ele>655.158</ele>
        <time>2018-12-28T12:47:53Z</time>
      </trkpt>
      <trkpt lat="34.803590" lon="-115.343110">
        <ele>656.652</ele>
        <time>2018-12-28T12:48:13Z</time>
      </trkpt>
      <trkpt lat="34.803810" lon="-115.345710">
        <ele>660.617</ele>
        <time>2018-12-28T12:48:33Z</time>
      </trkpt>
      <trkpt lat="34.803970" lon="-115.348830">
        <ele>661.308</ele>
        <time>2018-12-28T12:48:53Z</time>
      </trkpt>
      <trkpt lat="34.804020" lon="-115.350310">
        <ele>661.348</ele>
        <time>2018-12-28T12:49:13Z</time>
      </trkpt>
      <trkpt lat="34.804040" lon="-115.351140">
        <ele>661.356</ele>
        <time>2018-12-28T12:49:33Z</time>
      </trkpt>
      <trkpt lat="34.804060" lon="-115.352430">
        <ele>661.141</ele>
        <time>2018-12-28T12:49:53Z</time>
      </trkpt>
      <trkpt lat="34.804080" lon="-115.354530">
        <ele>660.692</ele>
        <time>2018-12-28T12:50:13Z</time>
      </trkpt>
      <trkpt lat="34.804080" lon="-115.357610">
        <ele>659.157</ele>
        <time>2018-12-28T12:50:33Z</time>
      </trkpt>
      <trkpt lat="34.804070" lon="-115.361120">
        <ele>661.868</ele>
        <time>2018-12-28T12:50:53Z</time>
      </trkpt>
      <trkpt lat="34.804070" lon="-115.364500">
        <ele>665.721</ele>
        <time>2018-12-28T12:51:13Z</time>
      </trkpt>
      <trkpt lat="34.804050" lon="-115.365290">
        <ele>665.981</ele>
        <time>2018-12-28T12:51:33Z</time>
      </trkpt>
      <trkpt lat="34.804030" lon="-115.365990">
        <ele>665.765</ele>
        <time>2018-12-28T12:51:53Z</time>
      </trkpt>
      <trkpt lat="34.803980" lon="-115.367080">
        <ele>666.068</ele>
        <time>2018-12-28T12:52:13Z</time>
      </trkpt>
      <trkpt lat="34.803880" lon="-115.368240">
        <ele>665.714</ele>
        <time>2018-12-28T12:52:33Z</time>
      </trkpt>
      <trkpt lat="34.803840" lon="-115.368570">
        <ele>665.608</ele>
        <time>2018-12-28T12:52:53Z</time>
      </trkpt>
      <trkpt lat="34.803770" lon="-115.369100">
        <ele>665.939</ele>
        <time>2018-12-28T12:53:13Z</time>
      </trkpt>
      <trkpt lat="34.803620" lon="-115.370160">
        <ele>669.467</ele>
        <time>2018-12-28T12:53:33Z</time>
      </trkpt>
      <trkpt lat="34.803540" lon="-115.370610">
        <ele>669.882</ele>
        <time>2018-12-28T12:53:53Z</time>
      </trkpt>
      <trkpt lat="34.803420" lon="-115.371210">
        <ele>670.943</ele>
        <time>2018-12-28T12:54:13Z</time>
      </trkpt>
      <trkpt lat="34.803290" lon="-115.371820">
        <ele>670.928</ele>
        <time>2018-12-28T12:54:33Z</time>
      </trkpt>
      <trkpt lat="34.803190" lon="-115.372250">
        <ele>671.479</ele>
        <time>2018-12-28T12:54:53Z</time>
      </trkpt>
      <trkpt lat="34.803050" lon="-115.372820">
        <ele>670.972</ele>
        <time>2018-12-28T12:55:13Z</time>
      </trkpt>
      <trkpt lat="34.802900" lon="-115.373420">
        <ele>669.752</ele>
        <time>2018-12-28T12:55:33Z</time>
      </trkpt>
      <trkpt lat="34.802360" lon="-115.375150">
        <ele>669.982</ele>
        <time>2018-12-28T12:55:53Z</time>
      </trkpt>
      <trkpt lat="34.800670" lon="-115.380070">
        <ele>681.043</ele>
        <time>2018-12-28T12:56:13Z</time>
      </trkpt>
      <trkpt lat="34.800190" lon="-115.381480">
        <ele>684.917</ele>
        <time>2018-12-28T12:56:33Z</time>
      </trkpt>
      <trkpt lat="34.799910" lon="-115.382320">
        <ele>685.508</ele>
        <time>2018-12-28T12:56:53Z</time>
      </trkpt>
      <trkpt lat="34.799560" lon="-115.383510">
        <ele>685.811</ele>
        <time>2018-12-28T12:57:13Z</time>
      </trkpt>
      <trkpt lat="34.799370" lon="-115.384170">
        <ele>688.679</ele>
        <time>2018-12-28T12:57:33Z</time>
      </trkpt>
      <trkpt lat="34.799100" lon="-115.385160">
        <ele>690.784</ele>
        <time>2018-12-28T12:57:53Z</time>
      </trkpt>
      <trkpt lat="34.798890" lon="-115.386030">
        <ele>690.825</ele>
        <time>2018-12-28T12:58:13Z</time>
      </trkpt>
      <trkpt lat="34.798370" lon="-115.388440">
        <ele>696.290</ele>
        <time>2018-12-28T12:58:33Z</time>
      </trkpt>
      <trkpt lat="34.797640" lon="-115.392000">
        <ele>700.831</ele>
        <time>2018-12-28T12:58:53Z</time>
      </trkpt>
      <trkpt lat="34.796410" lon="-115.397940">
        <ele>700.744</ele>
        <time>2018-12-28T12:59:13Z</time>
      </trkpt>
      <trkpt lat="34.795620" lon="-115.401810">
        <ele>701.834</ele>
        <time>2018-12-28T12:59:33Z</time>
      </trkpt>
      <trkpt lat="34.795530" lon="-115.402290">
        <ele>702.426</ele>
        <time>2018-12-28T12:59:53Z</time>
      </trkpt>
      <trkpt lat="34.794540" lon="-115.407090">
        <ele>705.847</ele>
        <time>2018-12-28T13:00:13Z</time>
      </trkpt>
      <trkpt lat="34.794190" lon="-115.408790">
        <ele>705.711</ele>
        <time>2018-12-28T13:00:33Z</time>
      </trkpt>
      <trkpt lat="34.794070" lon="-115.409230">
        <ele>705.908</ele>
        <time>2018-12-28T13:00:53Z</time>
      </trkpt>
      <trkpt lat="34.793980" lon="-115.409560">
        <ele>706.355</ele>
        <time>2018-12-28T13:01:13Z</time>
      </trkpt>
      <trkpt lat="34.793880" lon="-115.409910">
        <ele>706.483</ele>
        <time>2018-12-28T13:01:33Z</time>
      </trkpt>
      <trkpt lat="34.793740" lon="-115.410340">
        <ele>706.468</ele>
        <time>2018-12-28T13:01:53Z</time>
      </trkpt>
      <trkpt lat="34.793610" lon="-115.410700">
        <ele>706.589</ele>
        <time>2018-12-28T13:02:13Z</time>
      </trkpt>
      <trkpt lat="34.793420" lon="-115.411220">
        <ele>706.584</ele>
        <time>2018-12-28T13:02:33Z</time>
      </trkpt>
      <trkpt lat="34.793110" lon="-115.411960">
        <ele>706.435</ele>
        <time>2018-12-28T13:02:53Z</time>
      </trkpt>
      <trkpt lat="34.792560" lon="-115.413110">
        <ele>709.898</ele>
        <time>2018-12-28T13:03:13Z</time>
      </trkpt>
      <trkpt lat="34.792190" lon="-115.413780">
        <ele>710.768</ele>
        <time>2018-12-28T13:03:33Z</time>
      </trkpt>
      <trkpt lat="34.791650" lon="-115.414650">
        <ele>710.885</ele>
        <time>2018-12-28T13:03:53Z</time>
      </trkpt>
      <trkpt lat="34.790930" lon="-115.415720">
        <ele>711.889</ele>
        <time>2018-12-28T13:04:13Z</time>
      </trkpt>
      <trkpt lat="34.789930" lon="-115.417250">
        <ele>716.917</ele>
        <time>2018-12-28T13:04:33Z</time>
      </trkpt>
      <trkpt lat="34.789370" lon="-115.418140">
        <ele>718.908</ele>
        <time>2018-12-28T13:04:53Z</time>
      </trkpt>
      <trkpt lat="34.788680" lon="-115.419360">
        <ele>720.621</ele>
        <time>2018-12-28T13:05:13Z</time>
      </trkpt>
      <trkpt lat="34.788020" lon="-115.420660">
        <ele>721.169</ele>
        <time>2018-12-28T13:05:33Z</time>
      </trkpt>
      <trkpt lat="34.787570" lon="-115.421610">
        <ele>721.974</ele>
        <time>2018-12-28T13:05:53Z</time>
      </trkpt>
      <trkpt lat="34.787400" lon="-115.421980">
        <ele>723.675</ele>
        <time>2018-12-28T13:06:13Z</time>
      </trkpt>
      <trkpt lat="34.786900" lon="-115.423160">
        <ele>724.520</ele>
        <time>2018-12-28T13:06:33Z</time>
      </trkpt>
      <trkpt lat="34.786280" lon="-115.424810">
        <ele>727.551</ele>
        <time>2018-12-28T13:06:53Z</time>
      </trkpt>
      <trkpt lat="34.785740" lon="-115.426450">
        <ele>730.714</ele>
        <time>2018-12-28T13:07:13Z</time>
      </trkpt>
      <trkpt lat="34.785190" lon="-115.428020">
        <ele>732.764</ele>
        <time>2018-12-28T13:07:33Z</time>
      </trkpt>
      <trkpt lat="34.784530" lon="-115.430010">
        <ele>736.318</ele>
        <time>2018-12-28T13:07:53Z</time>
      </trkpt>
      <trkpt lat="34.783900" lon="-115.431840">
        <ele>740.498</ele>
        <time>2018-12-28T13:08:13Z</time>
      </trkpt>
      <trkpt lat="34.783310" lon="-115.433560">
        <ele>745.417</ele>
        <time>2018-12-28T13:08:33Z</time>
      </trkpt>
      <trkpt lat="34.782560" lon="-115.435740">
        <ele>747.408</ele>
        <time>2018-12-28T13:08:53Z</time>
      </trkpt>
      <trkpt lat="34.781140" lon="-115.439910">
        <ele>751.874</ele>
        <time>2018-12-28T13:09:13Z</time>
      </trkpt>
      <trkpt lat="34.778360" lon="-115.448080">
        <ele>755.852</ele>
        <time>2018-12-28T13:09:33Z</time>
      </trkpt>
      <trkpt lat="34.775780" lon="-115.455580">
        <ele>751.937</ele>
        <time>2018-12-28T13:09:53Z</time>
      </trkpt>
      <trkpt lat="34.774970" lon="-115.457970">
        <ele>750.938</ele>
        <time>2018-12-28T13:10:13Z</time>
      </trkpt>
      <trkpt lat="34.774010" lon="-115.460740">
        <ele>747.413</ele>
        <time>2018-12-28T13:10:33Z</time>
      </trkpt>
      <trkpt lat="34.773880" lon="-115.461120">
        <ele>746.864</ele>
        <time>2018-12-28T13:10:53Z</time>
      </trkpt>
      <trkpt lat="34.773630" lon="-115.461870">
        <ele>746.277</ele>
        <time>2018-12-28T13:11:13Z</time>
      </trkpt>
      <trkpt lat="34.773420" lon="-115.462470">
        <ele>746.027</ele>
        <time>2018-12-28T13:11:33Z</time>
      </trkpt>
      <trkpt lat="34.773210" lon="-115.463030">
        <ele>746.099</ele>
        <time>2018-12-28T13:11:53Z</time>
      </trkpt>
      <trkpt lat="34.773060" lon="-115.463420">
        <ele>745.807</ele>
        <time>2018-12-28T13:12:13Z</time>
      </trkpt>
      <trkpt lat="34.772720" lon="-115.464240">
        <ele>744.127</ele>
        <time>2018-12-28T13:12:33Z</time>
      </trkpt>
      <trkpt lat="34.772600" lon="-115.464550">
        <ele>745.508</ele>
        <time>2018-12-28T13:12:53Z</time>
      </trkpt>
      <trkpt lat="34.772420" lon="-115.464960">
        <ele>745.822</ele>
        <time>2018-12-28T13:13:13Z</time>
      </trkpt>
      <trkpt lat="34.772030" lon="-115.465800">
        <ele>745.930</ele>
        <time>2018-12-28T13:13:33Z</time>
      </trkpt>
      <trkpt lat="34.771560" lon="-115.466740">
        <ele>746.495</ele>
        <time>2018-12-28T13:13:53Z</time>
      </trkpt>
      <trkpt lat="34.771210" lon="-115.467430">
        <ele>746.876</ele>
        <time>2018-12-28T13:14:13Z</time>
      </trkpt>
      <trkpt lat="34.770850" lon="-115.468080">
        <ele>747.621</ele>
        <time>2018-12-28T13:14:33Z</time>
      </trkpt>
      <trkpt lat="34.770020" lon="-115.469500">
        <ele>748.952</ele>
        <time>2018-12-28T13:14:53Z</time>
      </trkpt>
      <trkpt lat="34.768440" lon="-115.472040">
        <ele>751.845</ele>
        <time>2018-12-28T13:15:13Z</time>
      </trkpt>
      <trkpt lat="34.767630" lon="-115.473360">
        <ele>751.775</ele>
        <time>2018-12-28T13:15:33Z</time>
      </trkpt>
      <trkpt lat="34.765830" lon="-115.476270">
        <ele>756.577</ele>
        <time>2018-12-28T13:15:53Z</time>
      </trkpt>
      <trkpt lat="34.765310" lon="-115.477130">
        <ele>759.061</ele>
        <time>2018-12-28T13:16:13Z</time>
      </trkpt>
      <trkpt lat="34.764860" lon="-115.477860">
        <ele>761.027</ele>
        <time>2018-12-28T13:16:33Z</time>
      </trkpt>
      <trkpt lat="34.764300" lon="-115.478770">
        <ele>762.408</ele>
        <time>2018-12-28T13:16:53Z</time>
      </trkpt>
      <trkpt lat="34.763860" lon="-115.479490">
        <ele>763.830</ele>
        <time>2018-12-28T13:17:13Z</time>
      </trkpt>
      <trkpt lat="34.763390" lon="-115.480270">
        <ele>765.778</ele>
        <time>2018-12-28T13:17:33Z</time>
      </trkpt>
      <trkpt lat="34.763050" lon="-115.480880">
        <ele>766.243</ele>
        <time>2018-12-28T13:17:53Z</time>
      </trkpt>
      <trkpt lat="34.762670" lon="-115.481590">
        <ele>767.884</ele>
        <time>2018-12-28T13:18:13Z</time>
      </trkpt>
      <trkpt lat="34.762450" lon="-115.482020">
        <ele>768.339</ele>
        <time>2018-12-28T13:18:33Z</time>
      </trkpt>
      <trkpt lat="34.762360" lon="-115.482190">
        <ele>768.530</ele>
        <time>2018-12-28T13:18:53Z</time>
      </trkpt>
      <trkpt lat="34.762130" lon="-115.482650">
        <ele>769.043</ele>
        <time>2018-12-28T13:19:13Z</time>
      </trkpt>
      <trkpt lat="34.761920" lon="-115.483100">
        <ele>770.163</ele>
        <time>2018-12-28T13:19:33Z</time>
      </trkpt>
      <trkpt lat="34.761600" lon="-115.483800">
        <ele>770.761</ele>
        <time>2018-12-28T13:19:53Z</time>
      </trkpt>
      <trkpt lat="34.761340" lon="-115.484410">
        <ele>770.821</ele>
        <time>2018-12-28T13:20:13Z</time>
      </trkpt>
      <trkpt lat="34.761120" lon="-115.484960">
        <ele>771.113</ele>
        <time>2018-12-28T13:20:33Z</time>
      </trkpt>
      <trkpt lat="34.760730" lon="-115.485970">
        <ele>771.108</ele>
        <time>2018-12-28T13:20:53Z</time>
      </trkpt>
      <trkpt lat="34.760220" lon="-115.487290">
        <ele>770.939</ele>
        <time>2018-12-28T13:21:13Z</time>
      </trkpt>
      <trkpt lat="34.760040" lon="-115.487770">
        <ele>770.877</ele>
        <time>2018-12-28T13:21:33Z</time>
      </trkpt>
      <trkpt lat="34.759540" lon="-115.489090">
        <ele>770.392</ele>
        <time>2018-12-28T13:21:53Z</time>
      </trkpt>
      <trkpt lat="34.759070" lon="-115.490340">
        <ele>770.663</ele>
        <time>2018-12-28T13:22:13Z</time>
      </trkpt>
      <trkpt lat="34.756190" lon="-115.497930">
        <ele>776.658</ele>
        <time>2018-12-28T13:22:33Z</time>
      </trkpt>
      <trkpt lat="34.755840" lon="-115.498860">
        <ele>777.489</ele>
        <time>2018-12-28T13:22:53Z</time>
      </trkpt>
      <trkpt lat="34.750570" lon="-115.512830">
        <ele>788.412</ele>
        <time>2018-12-28T13:23:13Z</time>
      </trkpt>
      <trkpt lat="34.743280" lon="-115.532100">
        <ele>811.352</ele>
        <time>2018-12-28T13:23:33Z</time>
      </trkpt>
      <trkpt lat="34.743140" lon="-115.532500">
        <ele>812.343</ele>
        <time>2018-12-28T13:23:53Z</time>
      </trkpt>
      <trkpt lat="34.742900" lon="-115.533120">
        <ele>812.964</ele>
        <time>2018-12-28T13:24:13Z</time>
      </trkpt>
      <trkpt lat="34.742020" lon="-115.535450">
        <ele>816.010</ele>
        <time>2018-12-28T13:24:33Z</time>
      </trkpt>
      <trkpt lat="34.741520" lon="-115.536760">
        <ele>818.208</ele>
        <time>2018-12-28T13:24:53Z</time>
      </trkpt>
      <trkpt lat="34.740800" lon="-115.538660">
        <ele>821.367</ele>
        <time>2018-12-28T13:25:13Z</time>
      </trkpt>
      <trkpt lat="34.740580" lon="-115.539230">
        <ele>821.645</ele>
        <time>2018-12-28T13:25:33Z</time>
      </trkpt>
      <trkpt lat="34.739710" lon="-115.541560">
        <ele>823.820</ele>
        <time>2018-12-28T13:25:53Z</time>
      </trkpt>
      <trkpt lat="34.739210" lon="-115.542870">
        <ele>825.291</ele>
        <time>2018-12-28T13:26:13Z</time>
      </trkpt>
      <trkpt lat="34.738980" lon="-115.543470">
        <ele>825.966</ele>
        <time>2018-12-28T13:26:33Z</time>
      </trkpt>
      <trkpt lat="34.738230" lon="-115.545450">
        <ele>826.957</ele>
        <time>2018-12-28T13:26:53Z</time>
      </trkpt>
      <trkpt lat="34.736450" lon="-115.550170">
        <ele>829.680</ele>
        <time>2018-12-28T13:27:13Z</time>
      </trkpt>
      <trkpt lat="34.734950" lon="-115.554150">
        <ele>827.060</ele>
        <time>2018-12-28T13:27:33Z</time>
      </trkpt>
      <trkpt lat="34.734170" lon="-115.556310">
        <ele>821.692</ele>
        <time>2018-12-28T13:27:53Z</time>
      </trkpt>
      <trkpt lat="34.734120" lon="-115.556440">
        <ele>821.873</ele>
        <time>2018-12-28T13:28:13Z</time>
      </trkpt>
      <trkpt lat="34.733870" lon="-115.557210">
        <ele>823.920</ele>
        <time>2018-12-28T13:28:33Z</time>
      </trkpt>
      <trkpt lat="34.733610" lon="-115.558110">
        <ele>827.908</ele>
        <time>2018-12-28T13:28:53Z</time>
      </trkpt>
      <trkpt lat="34.733470" lon="-115.558600">
        <ele>828.612</ele>
        <time>2018-12-28T13:29:13Z</time>
      </trkpt>
      <trkpt lat="34.733320" lon="-115.559240">
        <ele>829.660</ele>
        <time>2018-12-28T13:29:33Z</time>
      </trkpt>
      <trkpt lat="34.733250" lon="-115.559520">
        <ele>829.935</ele>
        <time>2018-12-28T13:29:53Z</time>
      </trkpt>
      <trkpt lat="34.733150" lon="-115.559960">
        <ele>830.436</ele>
        <time>2018-12-28T13:30:13Z</time>
      </trkpt>
      <trkpt lat="34.733090" lon="-115.560270">
        <ele>830.951</ele>
        <time>2018-12-28T13:30:33Z</time>
      </trkpt>
      <trkpt lat="34.733000" lon="-115.560760">
        <ele>833.862</ele>
        <time>2018-12-28T13:30:53Z</time>
      </trkpt>
      <trkpt lat="34.732930" lon="-115.561090">
        <ele>836.035</ele>
        <time>2018-12-28T13:31:13Z</time>
      </trkpt>
      <trkpt lat="34.732850" lon="-115.561540">
        <ele>837.675</ele>
        <time>2018-12-28T13:31:33Z</time>
      </trkpt>
      <trkpt lat="34.732770" lon="-115.562030">
        <ele>838.869</ele>
        <time>2018-12-28T13:31:53Z</time>
      </trkpt>
      <trkpt lat="34.732710" lon="-115.562490">
        <ele>839.904</ele>
        <time>2018-12-28T13:32:13Z</time>
      </trkpt>
      <trkpt lat="34.732640" lon="-115.563000">
        <ele>839.924</ele>
        <time>2018-12-28T13:32:33Z</time>
      </trkpt>
      <trkpt lat="34.732600" lon="-115.563290">
        <ele>839.908</ele>
        <time>2018-12-28T13:32:53Z</time>
      </trkpt>
      <trkpt lat="34.732570" lon="-115.563600">
        <ele>839.979</ele>
        <time>2018-12-28T13:33:13Z</time>
      </trkpt>
      <trkpt lat="34.732550" lon="-115.563760">
        <ele>839.987</ele>
        <time>2018-12-28T13:33:33Z</time>
      </trkpt>
      <trkpt lat="34.732500" lon="-115.564220">
        <ele>840.512</ele>
        <time>2018-12-28T13:33:53Z</time>
      </trkpt>
      <trkpt lat="34.732460" lon="-115.564860">
        <ele>842.653</ele>
        <time>2018-12-28T13:34:13Z</time>
      </trkpt>
      <trkpt lat="34.732420" lon="-115.565250">
        <ele>843.688</ele>
        <time>2018-12-28T13:34:33Z</time>
      </trkpt>
      <trkpt lat="34.732260" lon="-115.568860">
        <ele>854.219</ele>
        <time>2018-12-28T13:34:53Z</time>
      </trkpt>
      <trkpt lat="34.732250" lon="-115.569180">
        <ele>855.312</ele>
        <time>2018-12-28T13:35:13Z</time>
      </trkpt>
      <trkpt lat="34.732230" lon="-115.569670">
        <ele>857.052</ele>
        <time>2018-12-28T13:35:33Z</time>
      </trkpt>
      <trkpt lat="34.732200" lon="-115.570150">
        <ele>858.547</ele>
        <time>2018-12-28T13:35:53Z</time>
      </trkpt>
      <trkpt lat="34.732170" lon="-115.570780">
        <ele>860.729</ele>
        <time>2018-12-28T13:36:13Z</time>
      </trkpt>
      <trkpt lat="34.732150" lon="-115.571190">
        <ele>861.421</ele>
        <time>2018-12-28T13:36:33Z</time>
      </trkpt>
      <trkpt lat="34.732130" lon="-115.571590">
        <ele>862.708</ele>
        <time>2018-12-28T13:36:53Z</time>
      </trkpt>
      <trkpt lat="34.732120" lon="-115.571910">
        <ele>864.357</ele>
        <time>2018-12-28T13:37:13Z</time>
      </trkpt>
      <trkpt lat="34.732100" lon="-115.572260">
        <ele>866.145</ele>
        <time>2018-12-28T13:37:33Z</time>
      </trkpt>
      <trkpt lat="34.732100" lon="-115.572440">
        <ele>867.080</ele>
        <time>2018-12-28T13:37:53Z</time>
      </trkpt>
      <trkpt lat="34.732080" lon="-115.572880">
        <ele>868.231</ele>
        <time>2018-12-28T13:38:13Z</time>
      </trkpt>
      <trkpt lat="34.732070" lon="-115.573190">
        <ele>868.726</ele>
        <time>2018-12-28T13:38:33Z</time>
      </trkpt>
      <trkpt lat="34.732050" lon="-115.573550">
        <ele>869.237</ele>
        <time>2018-12-28T13:38:53Z</time>
      </trkpt>
      <trkpt lat="34.732020" lon="-115.574150">
        <ele>870.770</ele>
        <time>2018-12-28T13:39:13Z</time>
      </trkpt>
      <trkpt lat="34.732010" lon="-115.574490">
        <ele>870.880</ele>
        <time>2018-12-28T13:39:33Z</time>
      </trkpt>
      <trkpt lat="34.731970" lon="-115.575270">
        <ele>872.049</ele>
        <time>2018-12-28T13:39:53Z</time>
      </trkpt>
      <trkpt lat="34.731940" lon="-115.575910">
        <ele>874.602</ele>
        <time>2018-12-28T13:40:13Z</time>
      </trkpt>
      <trkpt lat="34.731900" lon="-115.576890">
        <ele>879.722</ele>
        <time>2018-12-28T13:40:33Z</time>
      </trkpt>
      <trkpt lat="34.731870" lon="-115.577540">
        <ele>881.508</ele>
        <time>2018-12-28T13:40:53Z</time>
      </trkpt>
      <trkpt lat="34.731780" lon="-115.579460">
        <ele>889.277</ele>
        <time>2018-12-28T13:41:13Z</time>
      </trkpt>
      <trkpt lat="34.731770" lon="-115.579620">
        <ele>889.435</ele>
        <time>2018-12-28T13:41:33Z</time>
      </trkpt>
      <trkpt lat="34.731740" lon="-115.580090">
        <ele>890.210</ele>
        <time>2018-12-28T13:41:53Z</time>
      </trkpt>
      <trkpt lat="34.731720" lon="-115.580390">
        <ele>890.751</ele>
        <time>2018-12-28T13:42:13Z</time>
      </trkpt>
      <trkpt lat="34.731700" lon="-115.580700">
        <ele>890.916</ele>
        <time>2018-12-28T13:42:33Z</time>
      </trkpt>
      <trkpt lat="34.731680" lon="-115.580850">
        <ele>891.417</ele>
        <time>2018-12-28T13:42:53Z</time>
      </trkpt>
      <trkpt lat="34.731650" lon="-115.581190">
        <ele>892.480</ele>
        <time>2018-12-28T13:43:13Z</time>
      </trkpt>
      <trkpt lat="34.731610" lon="-115.581650">
        <ele>894.210</ele>
        <time>2018-12-28T13:43:33Z</time>
      </trkpt>
      <trkpt lat="34.731580" lon="-115.581990">
        <ele>896.323</ele>
        <time>2018-12-28T13:43:53Z</time>
      </trkpt>
      <trkpt lat="34.731550" lon="-115.582340">
        <ele>898.183</ele>
        <time>2018-12-28T13:44:13Z</time>
      </trkpt>
      <trkpt lat="34.731520" lon="-115.582640">
        <ele>898.811</ele>
        <time>2018-12-28T13:44:33Z</time>
      </trkpt>
      <trkpt lat="34.731450" lon="-115.583240">
        <ele>899.808</ele>
        <time>2018-12-28T13:44:53Z</time>
      </trkpt>
      <trkpt lat="34.731420" lon="-115.583430">
        <ele>900.115</ele>
        <time>2018-12-28T13:45:13Z</time>
      </trkpt>
      <trkpt lat="34.731340" lon="-115.584070">
        <ele>901.823</ele>
        <time>2018-12-28T13:45:33Z</time>
      </trkpt>
      <trkpt lat="34.731210" lon="-115.585000">
        <ele>905.418</ele>
        <time>2018-12-28T13:45:53Z</time>
      </trkpt>
      <trkpt lat="34.731170" lon="-115.585310">
        <ele>907.259</ele>
        <time>2018-12-28T13:46:13Z</time>
      </trkpt>
      <trkpt lat="34.731150" lon="-115.585470">
        <ele>907.924</ele>
        <time>2018-12-28T13:46:33Z</time>
      </trkpt>
      <trkpt lat="34.731090" lon="-115.585930">
        <ele>908.735</ele>
        <time>2018-12-28T13:46:53Z</time>
      </trkpt>
      <trkpt lat="34.731060" lon="-115.586130">
        <ele>908.838</ele>
        <time>2018-12-28T13:47:13Z</time>
      </trkpt>
      <trkpt lat="34.730950" lon="-115.586890">
        <ele>910.298</ele>
        <time>2018-12-28T13:47:33Z</time>
      </trkpt>
      <trkpt lat="34.730840" lon="-115.587660">
        <ele>912.199</ele>
        <time>2018-12-28T13:47:53Z</time>
      </trkpt>
      <trkpt lat="34.730710" lon="-115.588640">
        <ele>914.407</ele>
        <time>2018-12-28T13:48:13Z</time>
      </trkpt>
      <trkpt lat="34.730620" lon="-115.589270">
        <ele>915.627</ele>
        <time>2018-12-28T13:48:33Z</time>
      </trkpt>
      <trkpt lat="34.730530" lon="-115.589880">
        <ele>916.308</ele>
        <time>2018-12-28T13:48:53Z</time>
      </trkpt>
      <trkpt lat="34.730480" lon="-115.590200">
        <ele>916.932</ele>
        <time>2018-12-28T13:49:13Z</time>
      </trkpt>
      <trkpt lat="34.730460" lon="-115.590370">
        <ele>917.170</ele>
        <time>2018-12-28T13:49:33Z</time>
      </trkpt>
      <trkpt lat="34.730440" lon="-115.590540">
        <ele>917.485</ele>
        <time>2018-12-28T13:49:53Z</time>
      </trkpt>
      <trkpt lat="34.730350" lon="-115.591160">
        <ele>918.346</ele>
        <time>2018-12-28T13:50:13Z</time>
      </trkpt>
      <trkpt lat="34.730290" lon="-115.591630">
        <ele>919.341</ele>
        <time>2018-12-28T13:50:33Z</time>
      </trkpt>
      <trkpt lat="34.730200" lon="-115.592260">
        <ele>921.042</ele>
        <time>2018-12-28T13:50:53Z</time>
      </trkpt>
      <trkpt lat="34.730090" lon="-115.593030">
        <ele>921.315</ele>
        <time>2018-12-28T13:51:13Z</time>
      </trkpt>
      <trkpt lat="34.729960" lon="-115.593980">
        <ele>921.885</ele>
        <time>2018-12-28T13:51:33Z</time>
      </trkpt>
      <trkpt lat="34.729900" lon="-115.594460">
        <ele>922.673</ele>
        <time>2018-12-28T13:51:53Z</time>
      </trkpt>
      <trkpt lat="34.729830" lon="-115.594930">
        <ele>923.385</ele>
        <time>2018-12-28T13:52:13Z</time>
      </trkpt>
      <trkpt lat="34.729740" lon="-115.595550">
        <ele>924.913</ele>
        <time>2018-12-28T13:52:33Z</time>
      </trkpt>
      <trkpt lat="34.729630" lon="-115.596370">
        <ele>926.308</ele>
        <time>2018-12-28T13:52:53Z</time>
      </trkpt>
      <trkpt lat="34.729540" lon="-115.596990">
        <ele>927.510</ele>
        <time>2018-12-28T13:53:13Z</time>
      </trkpt>
      <trkpt lat="34.729360" lon="-115.598250">
        <ele>930.898</ele>
        <time>2018-12-28T13:53:33Z</time>
      </trkpt>
      <trkpt lat="34.729290" lon="-115.598730">
        <ele>931.583</ele>
        <time>2018-12-28T13:53:53Z</time>
      </trkpt>
      <trkpt lat="34.729250" lon="-115.599050">
        <ele>932.054</ele>
        <time>2018-12-28T13:54:13Z</time>
      </trkpt>
      <trkpt lat="34.729080" lon="-115.600300">
        <ele>935.029</ele>
        <time>2018-12-28T13:54:33Z</time>
      </trkpt>
      <trkpt lat="34.729010" lon="-115.600780">
        <ele>936.370</ele>
        <time>2018-12-28T13:54:53Z</time>
      </trkpt>
      <trkpt lat="34.728920" lon="-115.601410">
        <ele>938.413</ele>
        <time>2018-12-28T13:55:13Z</time>
      </trkpt>
      <trkpt lat="34.728790" lon="-115.602360">
        <ele>940.843</ele>
        <time>2018-12-28T13:55:33Z</time>
      </trkpt>
      <trkpt lat="34.728740" lon="-115.602680">
        <ele>940.988</ele>
        <time>2018-12-28T13:55:53Z</time>
      </trkpt>
      <trkpt lat="34.728610" lon="-115.603610">
        <ele>942.024</ele>
        <time>2018-12-28T13:56:13Z</time>
      </trkpt>
      <trkpt lat="34.728520" lon="-115.604260">
        <ele>943.726</ele>
        <time>2018-12-28T13:56:33Z</time>
      </trkpt>
      <trkpt lat="34.728440" lon="-115.604890">
        <ele>945.508</ele>
        <time>2018-12-28T13:56:53Z</time>
      </trkpt>
      <trkpt lat="34.728330" lon="-115.605660">
        <ele>947.571</ele>
        <time>2018-12-28T13:57:13Z</time>
      </trkpt>
      <trkpt lat="34.728130" lon="-115.607090">
        <ele>950.699</ele>
        <time>2018-12-28T13:57:33Z</time>
      </trkpt>
      <trkpt lat="34.727950" lon="-115.608360">
        <ele>952.354</ele>
        <time>2018-12-28T13:57:53Z</time>
      </trkpt>
      <trkpt lat="34.727840" lon="-115.609160">
        <ele>953.715</ele>
        <time>2018-12-28T13:58:13Z</time>
      </trkpt>
      <trkpt lat="34.727660" lon="-115.610430">
        <ele>955.180</ele>
        <time>2018-12-28T13:58:33Z</time>
      </trkpt>
      <trkpt lat="34.727510" lon="-115.611530">
        <ele>957.051</ele>
        <time>2018-12-28T13:58:53Z</time>
      </trkpt>
      <trkpt lat="34.727420" lon="-115.612170">
        <ele>959.634</ele>
        <time>2018-12-28T13:59:13Z</time>
      </trkpt>
      <trkpt lat="34.727310" lon="-115.612940">
        <ele>960.634</ele>
        <time>2018-12-28T13:59:33Z</time>
      </trkpt>
      <trkpt lat="34.727140" lon="-115.614200">
        <ele>961.843</ele>
        <time>2018-12-28T13:59:53Z</time>
      </trkpt>
      <trkpt lat="34.727040" lon="-115.614850">
        <ele>962.164</ele>
        <time>2018-12-28T14:00:13Z</time>
      </trkpt>
      <trkpt lat="34.726850" lon="-115.616260">
        <ele>964.210</ele>
        <time>2018-12-28T14:00:33Z</time>
      </trkpt>
      <trkpt lat="34.726670" lon="-115.617540">
        <ele>965.008</ele>
        <time>2018-12-28T14:00:53Z</time>
      </trkpt>
      <trkpt lat="34.726410" lon="-115.619420">
        <ele>966.527</ele>
        <time>2018-12-28T14:01:13Z</time>
      </trkpt>
      <trkpt lat="34.726360" lon="-115.619730">
        <ele>966.815</ele>
        <time>2018-12-28T14:01:33Z</time>
      </trkpt>
      <trkpt lat="34.726350" lon="-115.619890">
        <ele>966.980</ele>
        <time>2018-12-28T14:01:53Z</time>
      </trkpt>
      <trkpt lat="34.726250" lon="-115.620520">
        <ele>967.531</ele>
        <time>2018-12-28T14:02:13Z</time>
      </trkpt>
      <trkpt lat="34.726000" lon="-115.622290">
        <ele>970.726</ele>
        <time>2018-12-28T14:02:33Z</time>
      </trkpt>
      <trkpt lat="34.725920" lon="-115.622910">
        <ele>970.757</ele>
        <time>2018-12-28T14:02:53Z</time>
      </trkpt>
      <trkpt lat="34.725830" lon="-115.623550">
        <ele>970.730</ele>
        <time>2018-12-28T14:03:13Z</time>
      </trkpt>
      <trkpt lat="34.725740" lon="-115.624170">
        <ele>970.890</ele>
        <time>2018-12-28T14:03:33Z</time>
      </trkpt>
      <trkpt lat="34.725590" lon="-115.625290">
        <ele>970.756</ele>
        <time>2018-12-28T14:03:53Z</time>
      </trkpt>
      <trkpt lat="34.725510" lon="-115.625840">
        <ele>970.759</ele>
        <time>2018-12-28T14:04:13Z</time>
      </trkpt>
      <trkpt lat="34.725430" lon="-115.626410">
        <ele>970.714</ele>
        <time>2018-12-28T14:04:33Z</time>
      </trkpt>
      <trkpt lat="34.725340" lon="-115.627030">
        <ele>970.708</ele>
        <time>2018-12-28T14:04:53Z</time>
      </trkpt>
      <trkpt lat="34.725300" lon="-115.627350">
        <ele>970.938</ele>
        <time>2018-12-28T14:05:13Z</time>
      </trkpt>
      <trkpt lat="34.725230" lon="-115.627830">
        <ele>971.766</ele>
        <time>2018-12-28T14:05:33Z</time>
      </trkpt>
      <trkpt lat="34.725120" lon="-115.628610">
        <ele>971.971</ele>
        <time>2018-12-28T14:05:53Z</time>
      </trkpt>
      <trkpt lat="34.725100" lon="-115.628780">
        <ele>971.962</ele>
        <time>2018-12-28T14:06:13Z</time>
      </trkpt>
      <trkpt lat="34.725040" lon="-115.629240">
        <ele>972.017</ele>
        <time>2018-12-28T14:06:33Z</time>
      </trkpt>
      <trkpt lat="34.724990" lon="-115.629580">
        <ele>972.158</ele>
        <time>2018-12-28T14:06:53Z</time>
      </trkpt>
      <trkpt lat="34.724920" lon="-115.630040">
        <ele>972.051</ele>
        <time>2018-12-28T14:07:13Z</time>
      </trkpt>
      <trkpt lat="34.724860" lon="-115.630510">
        <ele>972.041</ele>
        <time>2018-12-28T14:07:33Z</time>
      </trkpt>
      <trkpt lat="34.724440" lon="-115.633510">
        <ele>974.796</ele>
        <time>2018-12-28T14:07:53Z</time>
      </trkpt>
      <trkpt lat="34.724370" lon="-115.633970">
        <ele>975.631</ele>
        <time>2018-12-28T14:08:13Z</time>
      </trkpt>
      <trkpt lat="34.724090" lon="-115.636030">
        <ele>978.124</ele>
        <time>2018-12-28T14:08:33Z</time>
      </trkpt>
      <trkpt lat="34.723980" lon="-115.636800">
        <ele>980.108</ele>
        <time>2018-12-28T14:08:53Z</time>
      </trkpt>
      <trkpt lat="34.723940" lon="-115.637130">
        <ele>980.542</ele>
        <time>2018-12-28T14:09:13Z</time>
      </trkpt>
      <trkpt lat="34.723900" lon="-115.637450">
        <ele>980.870</ele>
        <time>2018-12-28T14:09:33Z</time>
      </trkpt>
      <trkpt lat="34.723880" lon="-115.637620">
        <ele>981.245</ele>
        <time>2018-12-28T14:09:53Z</time>
      </trkpt>
      <trkpt lat="34.723840" lon="-115.638080">
        <ele>985.146</ele>
        <time>2018-12-28T14:10:13Z</time>
      </trkpt>
      <trkpt lat="34.723760" lon="-115.639030">
        <ele>982.541</ele>
        <time>2018-12-28T14:10:33Z</time>
      </trkpt>
      <trkpt lat="34.723730" lon="-115.639390">
        <ele>980.952</ele>
        <time>2018-12-28T14:10:53Z</time>
      </trkpt>
      <trkpt lat="34.723710" lon="-115.639970">
        <ele>983.855</ele>
        <time>2018-12-28T14:11:13Z</time>
      </trkpt>
      <trkpt lat="34.723680" lon="-115.640610">
        <ele>987.825</ele>
        <time>2018-12-28T14:11:33Z</time>
      </trkpt>
      <trkpt lat="34.723660" lon="-115.641400">
        <ele>988.041</ele>
        <time>2018-12-28T14:11:53Z</time>
      </trkpt>
      <trkpt lat="34.723660" lon="-115.641720">
        <ele>987.981</ele>
        <time>2018-12-28T14:12:13Z</time>
      </trkpt>
      <trkpt lat="34.723660" lon="-115.641910">
        <ele>988.309</ele>
        <time>2018-12-28T14:12:33Z</time>
      </trkpt>
      <trkpt lat="34.723660" lon="-115.642370">
        <ele>989.708</ele>
        <time>2018-12-28T14:12:53Z</time>
      </trkpt>
      <trkpt lat="34.723670" lon="-115.642680">
        <ele>990.357</ele>
        <time>2018-12-28T14:13:13Z</time>
      </trkpt>
      <trkpt lat="34.723690" lon="-115.643340">
        <ele>990.445</ele>
        <time>2018-12-28T14:13:33Z</time>
      </trkpt>
      <trkpt lat="34.723700" lon="-115.643790">
        <ele>990.280</ele>
        <time>2018-12-28T14:13:53Z</time>
      </trkpt>
      <trkpt lat="34.723730" lon="-115.644250">
        <ele>990.231</ele>
        <time>2018-12-28T14:14:13Z</time>
      </trkpt>
      <trkpt lat="34.723760" lon="-115.645060">
        <ele>990.296</ele>
        <time>2018-12-28T14:14:33Z</time>
      </trkpt>
      <trkpt lat="34.723780" lon="-115.645700">
        <ele>990.657</ele>
        <time>2018-12-28T14:14:53Z</time>
      </trkpt>
      <trkpt lat="34.723890" lon="-115.648570">
        <ele>990.680</ele>
        <time>2018-12-28T14:15:13Z</time>
      </trkpt>
      <trkpt lat="34.723920" lon="-115.649360">
        <ele>989.280</ele>
        <time>2018-12-28T14:15:33Z</time>
      </trkpt>
      <trkpt lat="34.723980" lon="-115.650970">
        <ele>977.925</ele>
        <time>2018-12-28T14:15:53Z</time>
      </trkpt>
      <trkpt lat="34.724000" lon="-115.651440">
        <ele>978.126</ele>
        <time>2018-12-28T14:16:13Z</time>
      </trkpt>
      <trkpt lat="34.724020" lon="-115.651920">
        <ele>977.808</ele>
        <time>2018-12-28T14:16:33Z</time>
      </trkpt>
      <trkpt lat="34.724040" lon="-115.652710">
        <ele>972.908</ele>
        <time>2018-12-28T14:16:53Z</time>
      </trkpt>
      <trkpt lat="34.724040" lon="-115.652890">
        <ele>972.345</ele>
        <time>2018-12-28T14:17:13Z</time>
      </trkpt>
      <trkpt lat="34.724040" lon="-115.653370">
        <ele>971.983</ele>
        <time>2018-12-28T14:17:33Z</time>
      </trkpt>
      <trkpt lat="34.724040" lon="-115.653700">
        <ele>971.818</ele>
        <time>2018-12-28T14:17:53Z</time>
      </trkpt>
      <trkpt lat="34.724030" lon="-115.653870">
        <ele>971.899</ele>
        <time>2018-12-28T14:18:13Z</time>
      </trkpt>
      <trkpt lat="34.724030" lon="-115.654030">
        <ele>971.654</ele>
        <time>2018-12-28T14:18:33Z</time>
      </trkpt>
      <trkpt lat="34.724010" lon="-115.654320">
        <ele>970.565</ele>
        <time>2018-12-28T14:18:53Z</time>
      </trkpt>
      <trkpt lat="34.723970" lon="-115.654800">
        <ele>964.858</ele>
        <time>2018-12-28T14:19:13Z</time>
      </trkpt>
      <trkpt lat="34.723950" lon="-115.655010">
        <ele>964.398</ele>
        <time>2018-12-28T14:19:33Z</time>
      </trkpt>
      <trkpt lat="34.723920" lon="-115.655290">
        <ele>963.824</ele>
        <time>2018-12-28T14:19:53Z</time>
      </trkpt>
      <trkpt lat="34.723900" lon="-115.655480">
        <ele>963.604</ele>
        <time>2018-12-28T14:20:13Z</time>
      </trkpt>
      <trkpt lat="34.723880" lon="-115.655640">
        <ele>963.614</ele>
        <time>2018-12-28T14:20:33Z</time>
      </trkpt>
      <trkpt lat="34.723860" lon="-115.655790">
        <ele>963.708</ele>
        <time>2018-12-28T14:20:53Z</time>
      </trkpt>
      <trkpt lat="34.723840" lon="-115.655940">
        <ele>963.825</ele>
        <time>2018-12-28T14:21:13Z</time>
      </trkpt>
      <trkpt lat="34.723810" lon="-115.656130">
        <ele>962.613</ele>
        <time>2018-12-28T14:21:33Z</time>
      </trkpt>
      <trkpt lat="34.723730" lon="-115.656600">
        <ele>962.898</ele>
        <time>2018-12-28T14:21:53Z</time>
      </trkpt>
      <trkpt lat="34.723650" lon="-115.657040">
        <ele>963.089</ele>
        <time>2018-12-28T14:22:13Z</time>
      </trkpt>
      <trkpt lat="34.723550" lon="-115.657520">
        <ele>962.634</ele>
        <time>2018-12-28T14:22:33Z</time>
      </trkpt>
      <trkpt lat="34.723520" lon="-115.657700">
        <ele>962.615</ele>
        <time>2018-12-28T14:22:53Z</time>
      </trkpt>
      <trkpt lat="34.723460" lon="-115.658000">
        <ele>962.858</ele>
        <time>2018-12-28T14:23:13Z</time>
      </trkpt>
      <trkpt lat="34.723280" lon="-115.658930">
        <ele>959.348</ele>
        <time>2018-12-28T14:23:33Z</time>
      </trkpt>
      <trkpt lat="34.723210" lon="-115.659260">
        <ele>958.445</ele>
        <time>2018-12-28T14:23:53Z</time>
      </trkpt>
      <trkpt lat="34.723160" lon="-115.659550">
        <ele>957.847</ele>
        <time>2018-12-28T14:24:13Z</time>
      </trkpt>
      <trkpt lat="34.723100" lon="-115.659870">
        <ele>957.211</ele>
        <time>2018-12-28T14:24:33Z</time>
      </trkpt>
      <trkpt lat="34.723010" lon="-115.660350">
        <ele>957.208</ele>
        <time>2018-12-28T14:24:53Z</time>
      </trkpt>
      <trkpt lat="34.722960" lon="-115.660670">
        <ele>955.637</ele>
        <time>2018-12-28T14:25:13Z</time>
      </trkpt>
      <trkpt lat="34.722900" lon="-115.660990">
        <ele>954.215</ele>
        <time>2018-12-28T14:25:33Z</time>
      </trkpt>
      <trkpt lat="34.722830" lon="-115.661450">
        <ele>953.930</ele>
        <time>2018-12-28T14:25:53Z</time>
      </trkpt>
      <trkpt lat="34.722810" lon="-115.661620">
        <ele>953.891</ele>
        <time>2018-12-28T14:26:13Z</time>
      </trkpt>
      <trkpt lat="34.722750" lon="-115.662090">
        <ele>953.256</ele>
        <time>2018-12-28T14:26:33Z</time>
      </trkpt>
      <trkpt lat="34.722710" lon="-115.662390">
        <ele>951.017</ele>
        <time>2018-12-28T14:26:53Z</time>
      </trkpt>
      <trkpt lat="34.722660" lon="-115.662750">
        <ele>945.560</ele>
        <time>2018-12-28T14:27:13Z</time>
      </trkpt>
      <trkpt lat="34.722630" lon="-115.663010">
        <ele>944.530</ele>
        <time>2018-12-28T14:27:33Z</time>
      </trkpt>
      <trkpt lat="34.722580" lon="-115.663520">
        <ele>944.071</ele>
        <time>2018-12-28T14:27:53Z</time>
      </trkpt>
      <trkpt lat="34.722450" lon="-115.665140">
        <ele>942.541</ele>
        <time>2018-12-28T14:28:13Z</time>
      </trkpt>
      <trkpt lat="34.722380" lon="-115.665930">
        <ele>940.715</ele>
        <time>2018-12-28T14:28:33Z</time>
      </trkpt>
      <trkpt lat="34.722320" lon="-115.666660">
        <ele>937.808</ele>
        <time>2018-12-28T14:28:53Z</time>
      </trkpt>
      <trkpt lat="34.722280" lon="-115.667130">
        <ele>933.020</ele>
        <time>2018-12-28T14:29:13Z</time>
      </trkpt>
      <trkpt lat="34.722240" lon="-115.667690">
        <ele>931.048</ele>
        <time>2018-12-28T14:29:33Z</time>
      </trkpt>
      <trkpt lat="34.722150" lon="-115.668820">
        <ele>930.763</ele>
        <time>2018-12-28T14:29:53Z</time>
      </trkpt>
      <trkpt lat="34.722110" lon="-115.669280">
        <ele>930.754</ele>
        <time>2018-12-28T14:30:13Z</time>
      </trkpt>
      <trkpt lat="34.722030" lon="-115.670240">
        <ele>930.759</ele>
        <time>2018-12-28T14:30:33Z</time>
      </trkpt>
      <trkpt lat="34.721810" lon="-115.672930">
        <ele>922.560</ele>
        <time>2018-12-28T14:30:53Z</time>
      </trkpt>
      <trkpt lat="34.721780" lon="-115.673300">
        <ele>922.283</ele>
        <time>2018-12-28T14:31:13Z</time>
      </trkpt>
      <trkpt lat="34.721380" lon="-115.678130">
        <ele>911.163</ele>
        <time>2018-12-28T14:31:33Z</time>
      </trkpt>
      <trkpt lat="34.721350" lon="-115.678430">
        <ele>910.779</ele>
        <time>2018-12-28T14:31:53Z</time>
      </trkpt>
      <trkpt lat="34.721350" lon="-115.678450">
        <ele>910.705</ele>
        <time>2018-12-28T14:32:13Z</time>
      </trkpt>
      <trkpt lat="34.721320" lon="-115.678720">
        <ele>911.325</ele>
        <time>2018-12-28T14:32:33Z</time>
      </trkpt>
      <trkpt lat="34.721210" lon="-115.680110">
        <ele>910.608</ele>
        <time>2018-12-28T14:32:53Z</time>
      </trkpt>
      <trkpt lat="34.720960" lon="-115.683150">
        <ele>904.980</ele>
        <time>2018-12-28T14:33:13Z</time>
      </trkpt>
      <trkpt lat="34.720890" lon="-115.684120">
        <ele>907.798</ele>
        <time>2018-12-28T14:33:33Z</time>
      </trkpt>
      <trkpt lat="34.720790" lon="-115.685480">
        <ele>910.743</ele>
        <time>2018-12-28T14:33:53Z</time>
      </trkpt>
      <trkpt lat="34.720610" lon="-115.687860">
        <ele>908.784</ele>
        <time>2018-12-28T14:34:13Z</time>
      </trkpt>
      <trkpt lat="34.720400" lon="-115.690900">
        <ele>903.589</ele>
        <time>2018-12-28T14:34:33Z</time>
      </trkpt>
      <trkpt lat="34.720300" lon="-115.692310">
        <ele>901.420</ele>
        <time>2018-12-28T14:34:53Z</time>
      </trkpt>
      <trkpt lat="34.720270" lon="-115.692640">
        <ele>901.663</ele>
        <time>2018-12-28T14:35:13Z</time>
      </trkpt>
      <trkpt lat="34.720220" lon="-115.693440">
        <ele>901.583</ele>
        <time>2018-12-28T14:35:33Z</time>
      </trkpt>
      <trkpt lat="34.720180" lon="-115.693940">
        <ele>901.558</ele>
        <time>2018-12-28T14:35:53Z</time>
      </trkpt>
      <trkpt lat="34.720110" lon="-115.694960">
        <ele>901.552</ele>
        <time>2018-12-28T14:36:13Z</time>
      </trkpt>
      <trkpt lat="34.720070" lon="-115.695470">
        <ele>901.517</ele>
        <time>2018-12-28T14:36:33Z</time>
      </trkpt>
      <trkpt lat="34.719980" lon="-115.696750">
        <ele>902.008</ele>
        <time>2018-12-28T14:36:53Z</time>
      </trkpt>
      <trkpt lat="34.719930" lon="-115.697460">
        <ele>902.568</ele>
        <time>2018-12-28T14:37:13Z</time>
      </trkpt>
      <trkpt lat="34.719870" lon="-115.698290">
        <ele>902.646</ele>
        <time>2018-12-28T14:37:33Z</time>
      </trkpt>
      <trkpt lat="34.719820" lon="-115.699050">
        <ele>902.551</ele>
        <time>2018-12-28T14:37:53Z</time>
      </trkpt>
      <trkpt lat="34.719710" lon="-115.700540">
        <ele>902.252</ele>
        <time>2018-12-28T14:38:13Z</time>
      </trkpt>
      <trkpt lat="34.719560" lon="-115.702560">
        <ele>900.767</ele>
        <time>2018-12-28T14:38:33Z</time>
      </trkpt>
      <trkpt lat="34.719390" lon="-115.704990">
        <ele>899.538</ele>
        <time>2018-12-28T14:38:53Z</time>
      </trkpt>
      <trkpt lat="34.719180" lon="-115.707910">
        <ele>894.971</ele>
        <time>2018-12-28T14:39:13Z</time>
      </trkpt>
      <trkpt lat="34.719100" lon="-115.708930">
        <ele>895.051</ele>
        <time>2018-12-28T14:39:33Z</time>
      </trkpt>
      <trkpt lat="34.719030" lon="-115.709980">
        <ele>895.342</ele>
        <time>2018-12-28T14:39:53Z</time>
      </trkpt>
      <trkpt lat="34.718890" lon="-115.711820">
        <ele>895.922</ele>
        <time>2018-12-28T14:40:13Z</time>
      </trkpt>
      <trkpt lat="34.718840" lon="-115.712580">
        <ele>895.914</ele>
        <time>2018-12-28T14:40:33Z</time>
      </trkpt>
      <trkpt lat="34.718780" lon="-115.713430">
        <ele>895.608</ele>
        <time>2018-12-28T14:40:53Z</time>
      </trkpt>
      <trkpt lat="34.718710" lon="-115.714320">
        <ele>895.547</ele>
        <time>2018-12-28T14:41:13Z</time>
      </trkpt>
      <trkpt lat="34.718650" lon="-115.715210">
        <ele>895.535</ele>
        <time>2018-12-28T14:41:33Z</time>
      </trkpt>
      <trkpt lat="34.718580" lon="-115.716100">
        <ele>895.410</ele>
        <time>2018-12-28T14:41:53Z</time>
      </trkpt>
      <trkpt lat="34.718540" lon="-115.716690">
        <ele>895.461</ele>
        <time>2018-12-28T14:42:13Z</time>
      </trkpt>
      <trkpt lat="34.718430" lon="-115.718240">
        <ele>895.326</ele>
        <time>2018-12-28T14:42:33Z</time>
      </trkpt>
      <trkpt lat="34.718240" lon="-115.720910">
        <ele>895.417</ele>
        <time>2018-12-28T14:42:53Z</time>
      </trkpt>
      <trkpt lat="34.718200" lon="-115.721380">
        <ele>895.380</ele>
        <time>2018-12-28T14:43:13Z</time>
      </trkpt>
      <trkpt lat="34.718140" lon="-115.722310">
        <ele>895.410</ele>
        <time>2018-12-28T14:43:33Z</time>
      </trkpt>
      <trkpt lat="34.718050" lon="-115.723470">
        <ele>895.285</ele>
        <time>2018-12-28T14:43:53Z</time>
      </trkpt>
      <trkpt lat="34.717990" lon="-115.724440">
        <ele>895.189</ele>
        <time>2018-12-28T14:44:13Z</time>
      </trkpt>
      <trkpt lat="34.717970" lon="-115.724620">
        <ele>894.917</ele>
        <time>2018-12-28T14:44:33Z</time>
      </trkpt>
      <trkpt lat="34.717910" lon="-115.725430">
        <ele>896.208</ele>
        <time>2018-12-28T14:44:53Z</time>
      </trkpt>
      <trkpt lat="34.717900" lon="-115.725600">
        <ele>895.791</ele>
        <time>2018-12-28T14:45:13Z</time>
      </trkpt>
      <trkpt lat="34.717820" lon="-115.726720">
        <ele>894.829</ele>
        <time>2018-12-28T14:45:33Z</time>
      </trkpt>
      <trkpt lat="34.717780" lon="-115.727230">
        <ele>894.884</ele>
        <time>2018-12-28T14:45:53Z</time>
      </trkpt>
      <trkpt lat="34.717750" lon="-115.727670">
        <ele>894.775</ele>
        <time>2018-12-28T14:46:13Z</time>
      </trkpt>
      <trkpt lat="34.717610" lon="-115.729640">
        <ele>895.370</ele>
        <time>2018-12-28T14:46:33Z</time>
      </trkpt>
      <trkpt lat="34.717600" lon="-115.729860">
        <ele>895.441</ele>
        <time>2018-12-28T14:46:53Z</time>
      </trkpt>
      <trkpt lat="34.717570" lon="-115.730250">
        <ele>895.124</ele>
        <time>2018-12-28T14:47:13Z</time>
      </trkpt>
      <trkpt lat="34.717480" lon="-115.731430">
        <ele>894.664</ele>
        <time>2018-12-28T14:47:33Z</time>
      </trkpt>
      <trkpt lat="34.717420" lon="-115.732300">
        <ele>894.655</ele>
        <time>2018-12-28T14:47:53Z</time>
      </trkpt>
      <trkpt lat="34.717340" lon="-115.733350">
        <ele>894.607</ele>
        <time>2018-12-28T14:48:13Z</time>
      </trkpt>
      <trkpt lat="34.717320" lon="-115.733660">
        <ele>894.717</ele>
        <time>2018-12-28T14:48:33Z</time>
      </trkpt>
      <trkpt lat="34.717170" lon="-115.735710">
        <ele>895.608</ele>
        <time>2018-12-28T14:48:53Z</time>
      </trkpt>
      <trkpt lat="34.717070" lon="-115.737170">
        <ele>896.188</ele>
        <time>2018-12-28T14:49:13Z</time>
      </trkpt>
      <trkpt lat="34.717020" lon="-115.737810">
        <ele>896.086</ele>
        <time>2018-12-28T14:49:33Z</time>
      </trkpt>
      <trkpt lat="34.716970" lon="-115.738590">
        <ele>896.041</ele>
        <time>2018-12-28T14:49:53Z</time>
      </trkpt>
      <trkpt lat="34.716940" lon="-115.739080">
        <ele>895.962</ele>
        <time>2018-12-28T14:50:13Z</time>
      </trkpt>
      <trkpt lat="34.716880" lon="-115.740010">
        <ele>895.467</ele>
        <time>2018-12-28T14:50:33Z</time>
      </trkpt>
      <trkpt lat="34.716840" lon="-115.740990">
        <ele>894.568</ele>
        <time>2018-12-28T14:50:53Z</time>
      </trkpt>
      <trkpt lat="34.716830" lon="-115.741470">
        <ele>894.241</ele>
        <time>2018-12-28T14:51:13Z</time>
      </trkpt>
      <trkpt lat="34.716810" lon="-115.742040">
        <ele>893.841</ele>
        <time>2018-12-28T14:51:33Z</time>
      </trkpt>
      <trkpt lat="34.716800" lon="-115.742640">
        <ele>893.425</ele>
        <time>2018-12-28T14:51:53Z</time>
      </trkpt>
      <trkpt lat="34.716790" lon="-115.743040">
        <ele>895.526</ele>
        <time>2018-12-28T14:52:13Z</time>
      </trkpt>
      <trkpt lat="34.716790" lon="-115.743650">
        <ele>898.308</ele>
        <time>2018-12-28T14:52:33Z</time>
      </trkpt>
      <trkpt lat="34.716790" lon="-115.744410">
        <ele>899.508</ele>
        <time>2018-12-28T14:52:53Z</time>
      </trkpt>
      <trkpt lat="34.716790" lon="-115.744960">
        <ele>899.465</ele>
        <time>2018-12-28T14:53:13Z</time>
      </trkpt>
      <trkpt lat="34.716810" lon="-115.745670">
        <ele>900.293</ele>
        <time>2018-12-28T14:53:33Z</time>
      </trkpt>
      <trkpt lat="34.716820" lon="-115.746170">
        <ele>896.548</ele>
        <time>2018-12-28T14:53:53Z</time>
      </trkpt>
      <trkpt lat="34.716830" lon="-115.746680">
        <ele>891.729</ele>
        <time>2018-12-28T14:54:13Z</time>
      </trkpt>
      <trkpt lat="34.716850" lon="-115.747720">
        <ele>890.414</ele>
        <time>2018-12-28T14:54:33Z</time>
      </trkpt>
      <trkpt lat="34.716870" lon="-115.748710">
        <ele>890.615</ele>
        <time>2018-12-28T14:54:53Z</time>
      </trkpt>
      <trkpt lat="34.716880" lon="-115.749300">
        <ele>890.068</ele>
        <time>2018-12-28T14:55:13Z</time>
      </trkpt>
      <trkpt lat="34.716920" lon="-115.751580">
        <ele>887.048</ele>
        <time>2018-12-28T14:55:33Z</time>
      </trkpt>
      <trkpt lat="34.716970" lon="-115.753980">
        <ele>884.964</ele>
        <time>2018-12-28T14:55:53Z</time>
      </trkpt>
      <trkpt lat="34.716990" lon="-115.755090">
        <ele>882.606</ele>
        <time>2018-12-28T14:56:13Z</time>
      </trkpt>
      <trkpt lat="34.717000" lon="-115.755820">
        <ele>881.916</ele>
        <time>2018-12-28T14:56:33Z</time>
      </trkpt>
      <trkpt lat="34.717020" lon="-115.756570">
        <ele>884.008</ele>
        <time>2018-12-28T14:56:53Z</time>
      </trkpt>
      <trkpt lat="34.717040" lon="-115.757570">
        <ele>887.399</ele>
        <time>2018-12-28T14:57:13Z</time>
      </trkpt>
      <trkpt lat="34.717050" lon="-115.758120">
        <ele>887.627</ele>
        <time>2018-12-28T14:57:33Z</time>
      </trkpt>
      <trkpt lat="34.717070" lon="-115.759430">
        <ele>888.062</ele>
        <time>2018-12-28T14:57:53Z</time>
      </trkpt>
      <trkpt lat="34.717110" lon="-115.761010">
        <ele>889.443</ele>
        <time>2018-12-28T14:58:13Z</time>
      </trkpt>
      <trkpt lat="34.717130" lon="-115.762210">
        <ele>889.718</ele>
        <time>2018-12-28T14:58:33Z</time>
      </trkpt>
      <trkpt lat="34.717150" lon="-115.763290">
        <ele>888.669</ele>
        <time>2018-12-28T14:58:53Z</time>
      </trkpt>
      <trkpt lat="34.717170" lon="-115.764260">
        <ele>889.132</ele>
        <time>2018-12-28T14:59:13Z</time>
      </trkpt>
      <trkpt lat="34.717250" lon="-115.768170">
        <ele>888.322</ele>
        <time>2018-12-28T14:59:33Z</time>
      </trkpt>
      <trkpt lat="34.717260" lon="-115.768740">
        <ele>887.961</ele>
        <time>2018-12-28T14:59:53Z</time>
      </trkpt>
      <trkpt lat="34.717270" lon="-115.769190">
        <ele>886.021</ele>
        <time>2018-12-28T15:00:13Z</time>
      </trkpt>
      <trkpt lat="34.717300" lon="-115.769750">
        <ele>887.713</ele>
        <time>2018-12-28T15:00:33Z</time>
      </trkpt>
      <trkpt lat="34.717340" lon="-115.770360">
        <ele>888.108</ele>
        <time>2018-12-28T15:00:53Z</time>
      </trkpt>
      <trkpt lat="34.717360" lon="-115.770740">
        <ele>888.089</ele>
        <time>2018-12-28T15:01:13Z</time>
      </trkpt>
      <trkpt lat="34.717420" lon="-115.771420">
        <ele>888.487</ele>
        <time>2018-12-28T15:01:33Z</time>
      </trkpt>
      <trkpt lat="34.717480" lon="-115.772020">
        <ele>888.192</ele>
        <time>2018-12-28T15:01:53Z</time>
      </trkpt>
      <trkpt lat="34.717540" lon="-115.772470">
        <ele>887.053</ele>
        <time>2018-12-28T15:02:13Z</time>
      </trkpt>
      <trkpt lat="34.717620" lon="-115.773130">
        <ele>886.818</ele>
        <time>2018-12-28T15:02:33Z</time>
      </trkpt>
      <trkpt lat="34.717680" lon="-115.773590">
        <ele>882.979</ele>
        <time>2018-12-28T15:02:53Z</time>
      </trkpt>
      <trkpt lat="34.717820" lon="-115.774400">
        <ele>882.352</ele>
        <time>2018-12-28T15:03:13Z</time>
      </trkpt>
      <trkpt lat="34.717970" lon="-115.775290">
        <ele>883.542</ele>
        <time>2018-12-28T15:03:33Z</time>
      </trkpt>
      <trkpt lat="34.718080" lon="-115.775950">
        <ele>884.397</ele>
        <time>2018-12-28T15:03:53Z</time>
      </trkpt>
      <trkpt lat="34.718200" lon="-115.776670">
        <ele>883.123</ele>
        <time>2018-12-28T15:04:13Z</time>
      </trkpt>
      <trkpt lat="34.718320" lon="-115.777350">
        <ele>881.925</ele>
        <time>2018-12-28T15:04:33Z</time>
      </trkpt>
      <trkpt lat="34.718470" lon="-115.778220">
        <ele>881.408</ele>
        <time>2018-12-28T15:04:53Z</time>
      </trkpt>
      <trkpt lat="34.718650" lon="-115.779330">
        <ele>882.992</ele>
        <time>2018-12-28T15:05:13Z</time>
      </trkpt>
      <trkpt lat="34.718780" lon="-115.780090">
        <ele>882.030</ele>
        <time>2018-12-28T15:05:33Z</time>
      </trkpt>
      <trkpt lat="34.718940" lon="-115.780990">
        <ele>884.345</ele>
        <time>2018-12-28T15:05:53Z</time>
      </trkpt>
      <trkpt lat="34.719090" lon="-115.781960">
        <ele>881.466</ele>
        <time>2018-12-28T15:06:13Z</time>
      </trkpt>
      <trkpt lat="34.719220" lon="-115.782740">
        <ele>881.471</ele>
        <time>2018-12-28T15:06:33Z</time>
      </trkpt>
      <trkpt lat="34.719310" lon="-115.783380">
        <ele>881.532</ele>
        <time>2018-12-28T15:06:53Z</time>
      </trkpt>
      <trkpt lat="34.719410" lon="-115.784100">
        <ele>884.435</ele>
        <time>2018-12-28T15:07:13Z</time>
      </trkpt>
      <trkpt lat="34.719490" lon="-115.784790">
        <ele>886.665</ele>
        <time>2018-12-28T15:07:33Z</time>
      </trkpt>
      <trkpt lat="34.719600" lon="-115.785790">
        <ele>888.134</ele>
        <time>2018-12-28T15:07:53Z</time>
      </trkpt>
      <trkpt lat="34.719660" lon="-115.786490">
        <ele>888.855</ele>
        <time>2018-12-28T15:08:13Z</time>
      </trkpt>
      <trkpt lat="34.719700" lon="-115.786970">
        <ele>887.210</ele>
        <time>2018-12-28T15:08:33Z</time>
      </trkpt>
      <trkpt lat="34.719740" lon="-115.787550">
        <ele>883.808</ele>
        <time>2018-12-28T15:08:53Z</time>
      </trkpt>
      <trkpt lat="34.719780" lon="-115.788090">
        <ele>883.976</ele>
        <time>2018-12-28T15:09:13Z</time>
      </trkpt>
      <trkpt lat="34.719800" lon="-115.788480">
        <ele>884.374</ele>
        <time>2018-12-28T15:09:33Z</time>
      </trkpt>
      <trkpt lat="34.719840" lon="-115.789360">
        <ele>885.049</ele>
        <time>2018-12-28T15:09:53Z</time>
      </trkpt>
      <trkpt lat="34.719900" lon="-115.790690">
        <ele>885.310</ele>
        <time>2018-12-28T15:10:13Z</time>
      </trkpt>
      <trkpt lat="34.719950" lon="-115.791650">
        <ele>888.935</ele>
        <time>2018-12-28T15:10:33Z</time>
      </trkpt>
      <trkpt lat="34.720000" lon="-115.792670">
        <ele>889.786</ele>
        <time>2018-12-28T15:10:53Z</time>
      </trkpt>
      <trkpt lat="34.720040" lon="-115.793670">
        <ele>889.559</ele>
        <time>2018-12-28T15:11:13Z</time>
      </trkpt>
      <trkpt lat="34.720110" lon="-115.794990">
        <ele>882.379</ele>
        <time>2018-12-28T15:11:33Z</time>
      </trkpt>
      <trkpt lat="34.720140" lon="-115.795640">
        <ele>882.316</ele>
        <time>2018-12-28T15:11:53Z</time>
      </trkpt>
      <trkpt lat="34.720160" lon="-115.796230">
        <ele>882.176</ele>
        <time>2018-12-28T15:12:13Z</time>
      </trkpt>
      <trkpt lat="34.720200" lon="-115.797090">
        <ele>883.313</ele>
        <time>2018-12-28T15:12:33Z</time>
      </trkpt>
      <trkpt lat="34.720220" lon="-115.797390">
        <ele>885.508</ele>
        <time>2018-12-28T15:12:53Z</time>
      </trkpt>
      <trkpt lat="34.720280" lon="-115.798670">
        <ele>885.944</ele>
        <time>2018-12-28T15:13:13Z</time>
      </trkpt>
      <trkpt lat="34.720300" lon="-115.799000">
        <ele>886.292</ele>
        <time>2018-12-28T15:13:33Z</time>
      </trkpt>
      <trkpt lat="34.720330" lon="-115.799490">
        <ele>882.587</ele>
        <time>2018-12-28T15:13:53Z</time>
      </trkpt>
      <trkpt lat="34.720380" lon="-115.800100">
        <ele>882.028</ele>
        <time>2018-12-28T15:14:13Z</time>
      </trkpt>
      <trkpt lat="34.720440" lon="-115.800760">
        <ele>882.463</ele>
        <time>2018-12-28T15:14:33Z</time>
      </trkpt>
      <trkpt lat="34.720500" lon="-115.801230">
        <ele>883.314</ele>
        <time>2018-12-28T15:14:53Z</time>
      </trkpt>
      <trkpt lat="34.720550" lon="-115.801720">
        <ele>881.577</ele>
        <time>2018-12-28T15:15:13Z</time>
      </trkpt>
      <trkpt lat="34.720610" lon="-115.802150">
        <ele>880.697</ele>
        <time>2018-12-28T15:15:33Z</time>
      </trkpt>
      <trkpt lat="34.720670" lon="-115.802500">
        <ele>880.522</ele>
        <time>2018-12-28T15:15:53Z</time>
      </trkpt>
      <trkpt lat="34.720740" lon="-115.802970">
        <ele>880.762</ele>
        <time>2018-12-28T15:16:13Z</time>
      </trkpt>
      <trkpt lat="34.720850" lon="-115.803640">
        <ele>880.708</ele>
        <time>2018-12-28T15:16:33Z</time>
      </trkpt>
      <trkpt lat="34.720940" lon="-115.804100">
        <ele>880.708</ele>
        <time>2018-12-28T15:16:53Z</time>
      </trkpt>
      <trkpt lat="34.721070" lon="-115.804730">
        <ele>880.635</ele>
        <time>2018-12-28T15:17:13Z</time>
      </trkpt>
      <trkpt lat="34.721170" lon="-115.805210">
        <ele>879.853</ele>
        <time>2018-12-28T15:17:33Z</time>
      </trkpt>
      <trkpt lat="34.721280" lon="-115.805700">
        <ele>879.598</ele>
        <time>2018-12-28T15:17:53Z</time>
      </trkpt>
      <trkpt lat="34.721550" lon="-115.806780">
        <ele>879.069</ele>
        <time>2018-12-28T15:18:13Z</time>
      </trkpt>
      <trkpt lat="34.721880" lon="-115.807920">
        <ele>880.184</ele>
        <time>2018-12-28T15:18:33Z</time>
      </trkpt>
      <trkpt lat="34.722160" lon="-115.808820">
        <ele>876.065</ele>
        <time>2018-12-28T15:18:53Z</time>
      </trkpt>
      <trkpt lat="34.722350" lon="-115.809400">
        <ele>876.538</ele>
        <time>2018-12-28T15:19:13Z</time>
      </trkpt>
      <trkpt lat="34.722660" lon="-115.810320">
        <ele>876.198</ele>
        <time>2018-12-28T15:19:33Z</time>
      </trkpt>
      <trkpt lat="34.723230" lon="-115.812080">
        <ele>872.082</ele>
        <time>2018-12-28T15:19:53Z</time>
      </trkpt>
      <trkpt lat="34.724010" lon="-115.814460">
        <ele>866.243</ele>
        <time>2018-12-28T15:20:13Z</time>
      </trkpt>
      <trkpt lat="34.724150" lon="-115.814900">
        <ele>864.617</ele>
        <time>2018-12-28T15:20:33Z</time>
      </trkpt>
      <trkpt lat="34.724200" lon="-115.815060">
        <ele>864.508</ele>
        <time>2018-12-28T15:20:53Z</time>
      </trkpt>
      <trkpt lat="34.724210" lon="-115.815070">
        <ele>864.551</ele>
        <time>2018-12-28T15:21:13Z</time>
      </trkpt>
      <trkpt lat="34.724220" lon="-115.815090">
        <ele>864.529</ele>
        <time>2018-12-28T15:21:33Z</time>
      </trkpt>
      <trkpt lat="34.724230" lon="-115.815100">
        <ele>864.664</ele>
        <time>2018-12-28T15:21:53Z</time>
      </trkpt>
      <trkpt lat="34.724250" lon="-115.815160">
        <ele>864.565</ele>
        <time>2018-12-28T15:22:13Z</time>
      </trkpt>
      <trkpt lat="34.724290" lon="-115.815280">
        <ele>864.410</ele>
        <time>2018-12-28T15:22:33Z</time>
      </trkpt>
      <trkpt lat="34.724920" lon="-115.817200">
        <ele>861.231</ele>
        <time>2018-12-28T15:22:53Z</time>
      </trkpt>
      <trkpt lat="34.725610" lon="-115.819320">
        <ele>858.994</ele>
        <time>2018-12-28T15:23:13Z</time>
      </trkpt>
      <trkpt lat="34.726100" lon="-115.820800">
        <ele>854.564</ele>
        <time>2018-12-28T15:23:33Z</time>
      </trkpt>
      <trkpt lat="34.726230" lon="-115.821190">
        <ele>854.136</ele>
        <time>2018-12-28T15:23:53Z</time>
      </trkpt>
      <trkpt lat="34.726370" lon="-115.821640">
        <ele>853.617</ele>
        <time>2018-12-28T15:24:13Z</time>
      </trkpt>
      <trkpt lat="34.726510" lon="-115.822130">
        <ele>853.618</ele>
        <time>2018-12-28T15:24:33Z</time>
      </trkpt>
      <trkpt lat="34.726710" lon="-115.822860">
        <ele>853.108</ele>
        <time>2018-12-28T15:24:53Z</time>
      </trkpt>
      <trkpt lat="34.726850" lon="-115.823350">
        <ele>852.896</ele>
        <time>2018-12-28T15:25:13Z</time>
      </trkpt>
      <trkpt lat="34.726920" lon="-115.823630">
        <ele>852.524</ele>
        <time>2018-12-28T15:25:33Z</time>
      </trkpt>
      <trkpt lat="34.727000" lon="-115.823960">
        <ele>852.339</ele>
        <time>2018-12-28T15:25:53Z</time>
      </trkpt>
      <trkpt lat="34.727100" lon="-115.824380">
        <ele>852.170</ele>
        <time>2018-12-28T15:26:13Z</time>
      </trkpt>
      <trkpt lat="34.727170" lon="-115.824710">
        <ele>851.375</ele>
        <time>2018-12-28T15:26:33Z</time>
      </trkpt>
      <trkpt lat="34.727270" lon="-115.825130">
        <ele>850.816</ele>
        <time>2018-12-28T15:26:53Z</time>
      </trkpt>
      <trkpt lat="34.727370" lon="-115.825630">
        <ele>850.749</ele>
        <time>2018-12-28T15:27:13Z</time>
      </trkpt>
      <trkpt lat="34.727450" lon="-115.826080">
        <ele>850.679</ele>
        <time>2018-12-28T15:27:33Z</time>
      </trkpt>
      <trkpt lat="34.727590" lon="-115.826850">
        <ele>850.034</ele>
        <time>2018-12-28T15:27:53Z</time>
      </trkpt>
      <trkpt lat="34.727730" lon="-115.827740">
        <ele>843.755</ele>
        <time>2018-12-28T15:28:13Z</time>
      </trkpt>
      <trkpt lat="34.727820" lon="-115.828380">
        <ele>842.710</ele>
        <time>2018-12-28T15:28:33Z</time>
      </trkpt>
      <trkpt lat="34.727980" lon="-115.829370">
        <ele>842.208</ele>
        <time>2018-12-28T15:28:53Z</time>
      </trkpt>
      <trkpt lat="34.728510" lon="-115.832760">
        <ele>840.756</ele>
        <time>2018-12-28T15:29:13Z</time>
      </trkpt>
      <trkpt lat="34.728710" lon="-115.834010">
        <ele>838.954</ele>
        <time>2018-12-28T15:29:33Z</time>
      </trkpt>
      <trkpt lat="34.728870" lon="-115.835030">
        <ele>837.629</ele>
        <time>2018-12-28T15:29:53Z</time>
      </trkpt>
      <trkpt lat="34.728970" lon="-115.835640">
        <ele>837.390</ele>
        <time>2018-12-28T15:30:13Z</time>
      </trkpt>
      <trkpt lat="34.729130" lon="-115.836680">
        <ele>836.515</ele>
        <time>2018-12-28T15:30:33Z</time>
      </trkpt>
      <trkpt lat="34.729250" lon="-115.837410">
        <ele>836.736</ele>
        <time>2018-12-28T15:30:53Z</time>
      </trkpt>
      <trkpt lat="34.729320" lon="-115.837890">
        <ele>837.759</ele>
        <time>2018-12-28T15:31:13Z</time>
      </trkpt>
      <trkpt lat="34.729460" lon="-115.838760">
        <ele>836.439</ele>
        <time>2018-12-28T15:31:33Z</time>
      </trkpt>
      <trkpt lat="34.729680" lon="-115.840180">
        <ele>833.323</ele>
        <time>2018-12-28T15:31:53Z</time>
      </trkpt>
      <trkpt lat="34.729850" lon="-115.841280">
        <ele>832.583</ele>
        <time>2018-12-28T15:32:13Z</time>
      </trkpt>
      <trkpt lat="34.730050" lon="-115.842510">
        <ele>833.811</ele>
        <time>2018-12-28T15:32:33Z</time>
      </trkpt>
      <trkpt lat="34.730180" lon="-115.843350">
        <ele>835.508</ele>
        <time>2018-12-28T15:32:53Z</time>
      </trkpt>
      <trkpt lat="34.730270" lon="-115.843970">
        <ele>836.765</ele>
        <time>2018-12-28T15:33:13Z</time>
      </trkpt>
      <trkpt lat="34.730590" lon="-115.846000">
        <ele>838.523</ele>
        <time>2018-12-28T15:33:33Z</time>
      </trkpt>
      <trkpt lat="34.730800" lon="-115.847350">
        <ele>841.068</ele>
        <time>2018-12-28T15:33:53Z</time>
      </trkpt>
      <trkpt lat="34.730990" lon="-115.848540">
        <ele>840.789</ele>
        <time>2018-12-28T15:34:13Z</time>
      </trkpt>
      <trkpt lat="34.731190" lon="-115.849840">
        <ele>840.774</ele>
        <time>2018-12-28T15:34:33Z</time>
      </trkpt>
      <trkpt lat="34.731300" lon="-115.850520">
        <ele>840.735</ele>
        <time>2018-12-28T15:34:53Z</time>
      </trkpt>
      <trkpt lat="34.731410" lon="-115.851250">
        <ele>840.878</ele>
        <time>2018-12-28T15:35:13Z</time>
      </trkpt>
      <trkpt lat="34.731910" lon="-115.854430">
        <ele>851.268</ele>
        <time>2018-12-28T15:35:33Z</time>
      </trkpt>
      <trkpt lat="34.732010" lon="-115.855030">
        <ele>851.978</ele>
        <time>2018-12-28T15:35:53Z</time>
      </trkpt>
      <trkpt lat="34.732160" lon="-115.856060">
        <ele>852.633</ele>
        <time>2018-12-28T15:36:13Z</time>
      </trkpt>
      <trkpt lat="34.732240" lon="-115.856520">
        <ele>853.026</ele>
        <time>2018-12-28T15:36:33Z</time>
      </trkpt>
      <trkpt lat="34.732340" lon="-115.857150">
        <ele>853.808</ele>
        <time>2018-12-28T15:36:53Z</time>
      </trkpt>
      <trkpt lat="34.732500" lon="-115.858160">
        <ele>858.850</ele>
        <time>2018-12-28T15:37:13Z</time>
      </trkpt>
      <trkpt lat="34.732730" lon="-115.859650">
        <ele>861.028</ele>
        <time>2018-12-28T15:37:33Z</time>
      </trkpt>
      <trkpt lat="34.733220" lon="-115.862730">
        <ele>860.853</ele>
        <time>2018-12-28T15:37:53Z</time>
      </trkpt>
      <trkpt lat="34.733270" lon="-115.863100">
        <ele>861.544</ele>
        <time>2018-12-28T15:38:13Z</time>
      </trkpt>
      <trkpt lat="34.733410" lon="-115.864000">
        <ele>859.999</ele>
        <time>2018-12-28T15:38:33Z</time>
      </trkpt>
      <trkpt lat="34.733480" lon="-115.864380">
        <ele>860.110</ele>
        <time>2018-12-28T15:38:53Z</time>
      </trkpt>
      <trkpt lat="34.733580" lon="-115.864980">
        <ele>858.793</ele>
        <time>2018-12-28T15:39:13Z</time>
      </trkpt>
      <trkpt lat="34.733680" lon="-115.865470">
        <ele>856.623</ele>
        <time>2018-12-28T15:39:33Z</time>
      </trkpt>
      <trkpt lat="34.733810" lon="-115.866080">
        <ele>855.988</ele>
        <time>2018-12-28T15:39:53Z</time>
      </trkpt>
      <trkpt lat="34.734100" lon="-115.867310">
        <ele>853.724</ele>
        <time>2018-12-28T15:40:13Z</time>
      </trkpt>
      <trkpt lat="34.734370" lon="-115.868320">
        <ele>851.826</ele>
        <time>2018-12-28T15:40:33Z</time>
      </trkpt>
      <trkpt lat="34.734890" lon="-115.870120">
        <ele>847.708</ele>
        <time>2018-12-28T15:40:53Z</time>
      </trkpt>
      <trkpt lat="34.735060" lon="-115.870690">
        <ele>846.941</ele>
        <time>2018-12-28T15:41:13Z</time>
      </trkpt>
      <trkpt lat="34.735230" lon="-115.871290">
        <ele>840.819</ele>
        <time>2018-12-28T15:41:33Z</time>
      </trkpt>
      <trkpt lat="34.735450" lon="-115.872060">
        <ele>833.694</ele>
        <time>2018-12-28T15:41:53Z</time>
      </trkpt>
      <trkpt lat="34.735680" lon="-115.872930">
        <ele>831.055</ele>
        <time>2018-12-28T15:42:13Z</time>
      </trkpt>
      <trkpt lat="34.735800" lon="-115.873420">
        <ele>828.890</ele>
        <time>2018-12-28T15:42:33Z</time>
      </trkpt>
      <trkpt lat="34.735890" lon="-115.873840">
        <ele>824.671</ele>
        <time>2018-12-28T15:42:53Z</time>
      </trkpt>
      <trkpt lat="34.736000" lon="-115.874370">
        <ele>824.654</ele>
        <time>2018-12-28T15:43:13Z</time>
      </trkpt>
      <trkpt lat="34.736060" lon="-115.874660">
        <ele>824.874</ele>
        <time>2018-12-28T15:43:33Z</time>
      </trkpt>
      <trkpt lat="34.736160" lon="-115.875230">
        <ele>823.686</ele>
        <time>2018-12-28T15:43:53Z</time>
      </trkpt>
      <trkpt lat="34.736230" lon="-115.875630">
        <ele>821.760</ele>
        <time>2018-12-28T15:44:13Z</time>
      </trkpt>
      <trkpt lat="34.736280" lon="-115.876000">
        <ele>818.326</ele>
        <time>2018-12-28T15:44:33Z</time>
      </trkpt>
      <trkpt lat="34.736380" lon="-115.876750">
        <ele>813.008</ele>
        <time>2018-12-28T15:44:53Z</time>
      </trkpt>
      <trkpt lat="34.736410" lon="-115.877030">
        <ele>810.621</ele>
        <time>2018-12-28T15:45:13Z</time>
      </trkpt>
      <trkpt lat="34.736450" lon="-115.877390">
        <ele>810.789</ele>
        <time>2018-12-28T15:45:33Z</time>
      </trkpt>
      <trkpt lat="34.736480" lon="-115.877740">
        <ele>811.074</ele>
        <time>2018-12-28T15:45:53Z</time>
      </trkpt>
      <trkpt lat="34.736530" lon="-115.878360">
        <ele>810.415</ele>
        <time>2018-12-28T15:46:13Z</time>
      </trkpt>
      <trkpt lat="34.736560" lon="-115.878780">
        <ele>804.410</ele>
        <time>2018-12-28T15:46:33Z</time>
      </trkpt>
      <trkpt lat="34.736570" lon="-115.879080">
        <ele>802.871</ele>
        <time>2018-12-28T15:46:53Z</time>
      </trkpt>
      <trkpt lat="34.736600" lon="-115.879730">
        <ele>801.274</ele>
        <time>2018-12-28T15:47:13Z</time>
      </trkpt>
      <trkpt lat="34.736610" lon="-115.880390">
        <ele>801.054</ele>
        <time>2018-12-28T15:47:33Z</time>
      </trkpt>
      <trkpt lat="34.736600" lon="-115.881110">
        <ele>799.437</ele>
        <time>2018-12-28T15:47:53Z</time>
      </trkpt>
      <trkpt lat="34.736590" lon="-115.881550">
        <ele>797.449</ele>
        <time>2018-12-28T15:48:13Z</time>
      </trkpt>
      <trkpt lat="34.736560" lon="-115.882290">
        <ele>797.513</ele>
        <time>2018-12-28T15:48:33Z</time>
      </trkpt>
      <trkpt lat="34.736510" lon="-115.883050">
        <ele>798.008</ele>
        <time>2018-12-28T15:48:53Z</time>
      </trkpt>
      <trkpt lat="34.736460" lon="-115.883620">
        <ele>798.396</ele>
        <time>2018-12-28T15:49:13Z</time>
      </trkpt>
      <trkpt lat="34.736380" lon="-115.884390">
        <ele>797.564</ele>
        <time>2018-12-28T15:49:33Z</time>
      </trkpt>
      <trkpt lat="34.736340" lon="-115.884690">
        <ele>796.289</ele>
        <time>2018-12-28T15:49:53Z</time>
      </trkpt>
      <trkpt lat="34.736270" lon="-115.885220">
        <ele>791.290</ele>
        <time>2018-12-28T15:50:13Z</time>
      </trkpt>
      <trkpt lat="34.736170" lon="-115.885840">
        <ele>788.885</ele>
        <time>2018-12-28T15:50:33Z</time>
      </trkpt>
      <trkpt lat="34.736050" lon="-115.886550">
        <ele>786.686</ele>
        <time>2018-12-28T15:50:53Z</time>
      </trkpt>
      <trkpt lat="34.735950" lon="-115.887030">
        <ele>783.359</ele>
        <time>2018-12-28T15:51:13Z</time>
      </trkpt>
      <trkpt lat="34.735840" lon="-115.887530">
        <ele>782.129</ele>
        <time>2018-12-28T15:51:33Z</time>
      </trkpt>
      <trkpt lat="34.735780" lon="-115.887830">
        <ele>781.618</ele>
        <time>2018-12-28T15:51:53Z</time>
      </trkpt>
      <trkpt lat="34.735650" lon="-115.888360">
        <ele>781.298</ele>
        <time>2018-12-28T15:52:13Z</time>
      </trkpt>
      <trkpt lat="34.735550" lon="-115.888750">
        <ele>781.217</ele>
        <time>2018-12-28T15:52:33Z</time>
      </trkpt>
      <trkpt lat="34.735390" lon="-115.889330">
        <ele>781.208</ele>
        <time>2018-12-28T15:52:53Z</time>
      </trkpt>
      <trkpt lat="34.735220" lon="-115.889900">
        <ele>780.764</ele>
        <time>2018-12-28T15:53:13Z</time>
      </trkpt>
      <trkpt lat="34.735030" lon="-115.890490">
        <ele>780.722</ele>
        <time>2018-12-28T15:53:33Z</time>
      </trkpt>
      <trkpt lat="34.734890" lon="-115.890910">
        <ele>780.417</ele>
        <time>2018-12-28T15:53:53Z</time>
      </trkpt>
      <trkpt lat="34.734580" lon="-115.891750">
        <ele>779.438</ele>
        <time>2018-12-28T15:54:13Z</time>
      </trkpt>
      <trkpt lat="34.734280" lon="-115.892530">
        <ele>777.733</ele>
        <time>2018-12-28T15:54:33Z</time>
      </trkpt>
      <trkpt lat="34.733430" lon="-115.894700">
        <ele>771.354</ele>
        <time>2018-12-28T15:54:53Z</time>
      </trkpt>
      <trkpt lat="34.733220" lon="-115.895230">
        <ele>771.617</ele>
        <time>2018-12-28T15:55:13Z</time>
      </trkpt>
      <trkpt lat="34.733020" lon="-115.895770">
        <ele>771.747</ele>
        <time>2018-12-28T15:55:33Z</time>
      </trkpt>
      <trkpt lat="34.732790" lon="-115.896380">
        <ele>771.283</ele>
        <time>2018-12-28T15:55:53Z</time>
      </trkpt>
      <trkpt lat="34.732600" lon="-115.896930">
        <ele>770.925</ele>
        <time>2018-12-28T15:56:13Z</time>
      </trkpt>
      <trkpt lat="34.732560" lon="-115.897030">
        <ele>770.917</ele>
        <time>2018-12-28T15:56:33Z</time>
      </trkpt>
      <trkpt lat="34.732490" lon="-115.897230">
        <ele>770.808</ele>
        <time>2018-12-28T15:56:53Z</time>
      </trkpt>
      <trkpt lat="34.732330" lon="-115.897670">
        <ele>770.751</ele>
        <time>2018-12-28T15:57:13Z</time>
      </trkpt>
      <trkpt lat="34.732240" lon="-115.897940">
        <ele>770.719</ele>
        <time>2018-12-28T15:57:33Z</time>
      </trkpt>
      <trkpt lat="34.732110" lon="-115.898330">
        <ele>770.744</ele>
        <time>2018-12-28T15:57:53Z</time>
      </trkpt>
      <trkpt lat="34.731990" lon="-115.898690">
        <ele>770.785</ele>
        <time>2018-12-28T15:58:13Z</time>
      </trkpt>
      <trkpt lat="34.731920" lon="-115.898900">
        <ele>770.960</ele>
        <time>2018-12-28T15:58:33Z</time>
      </trkpt>
      <trkpt lat="34.731800" lon="-115.899270">
        <ele>771.311</ele>
        <time>2018-12-28T15:58:53Z</time>
      </trkpt>
      <trkpt lat="34.731680" lon="-115.899670">
        <ele>771.764</ele>
        <time>2018-12-28T15:59:13Z</time>
      </trkpt>
      <trkpt lat="34.731570" lon="-115.900020">
        <ele>772.074</ele>
        <time>2018-12-28T15:59:33Z</time>
      </trkpt>
      <trkpt lat="34.731420" lon="-115.900510">
        <ele>772.965</ele>
        <time>2018-12-28T15:59:53Z</time>
      </trkpt>
      <trkpt lat="34.731260" lon="-115.901080">
        <ele>774.368</ele>
        <time>2018-12-28T16:00:13Z</time>
      </trkpt>
      <trkpt lat="34.731130" lon="-115.901490">
        <ele>775.214</ele>
        <time>2018-12-28T16:00:33Z</time>
      </trkpt>
      <trkpt lat="34.730860" lon="-115.902460">
        <ele>780.708</ele>
        <time>2018-12-28T16:00:53Z</time>
      </trkpt>
      <trkpt lat="34.730430" lon="-115.904130">
        <ele>781.329</ele>
        <time>2018-12-28T16:01:13Z</time>
      </trkpt>
      <trkpt lat="34.730330" lon="-115.904500">
        <ele>781.157</ele>
        <time>2018-12-28T16:01:33Z</time>
      </trkpt>
      <trkpt lat="34.730200" lon="-115.905000">
        <ele>785.532</ele>
        <time>2018-12-28T16:01:53Z</time>
      </trkpt>
      <trkpt lat="34.730140" lon="-115.905260">
        <ele>788.493</ele>
        <time>2018-12-28T16:02:13Z</time>
      </trkpt>
      <trkpt lat="34.729940" lon="-115.906030">
        <ele>789.248</ele>
        <time>2018-12-28T16:02:33Z</time>
      </trkpt>
      <trkpt lat="34.729610" lon="-115.907320">
        <ele>785.679</ele>
        <time>2018-12-28T16:02:53Z</time>
      </trkpt>
      <trkpt lat="34.729160" lon="-115.909050">
        <ele>791.342</ele>
        <time>2018-12-28T16:03:13Z</time>
      </trkpt>
      <trkpt lat="34.728920" lon="-115.910010">
        <ele>793.432</ele>
        <time>2018-12-28T16:03:33Z</time>
      </trkpt>
      <trkpt lat="34.728610" lon="-115.911230">
        <ele>792.341</ele>
        <time>2018-12-28T16:03:53Z</time>
      </trkpt>
      <trkpt lat="34.728470" lon="-115.911850">
        <ele>793.081</ele>
        <time>2018-12-28T16:04:13Z</time>
      </trkpt>
      <trkpt lat="34.728410" lon="-115.912180">
        <ele>791.209</ele>
        <time>2018-12-28T16:04:33Z</time>
      </trkpt>
      <trkpt lat="34.728350" lon="-115.912450">
        <ele>791.608</ele>
        <time>2018-12-28T16:04:53Z</time>
      </trkpt>
      <trkpt lat="34.728290" lon="-115.912810">
        <ele>792.287</ele>
        <time>2018-12-28T16:05:13Z</time>
      </trkpt>
      <trkpt lat="34.728220" lon="-115.913230">
        <ele>790.475</ele>
        <time>2018-12-28T16:05:33Z</time>
      </trkpt>
      <trkpt lat="34.728150" lon="-115.913650">
        <ele>789.640</ele>
        <time>2018-12-28T16:05:53Z</time>
      </trkpt>
      <trkpt lat="34.728110" lon="-115.913960">
        <ele>789.351</ele>
        <time>2018-12-28T16:06:13Z</time>
      </trkpt>
      <trkpt lat="34.728050" lon="-115.914410">
        <ele>787.896</ele>
        <time>2018-12-28T16:06:33Z</time>
      </trkpt>
      <trkpt lat="34.728010" lon="-115.914780">
        <ele>786.897</ele>
        <time>2018-12-28T16:06:53Z</time>
      </trkpt>
      <trkpt lat="34.728000" lon="-115.914950">
        <ele>786.440</ele>
        <time>2018-12-28T16:07:13Z</time>
      </trkpt>
      <trkpt lat="34.727970" lon="-115.915220">
        <ele>785.520</ele>
        <time>2018-12-28T16:07:33Z</time>
      </trkpt>
      <trkpt lat="34.727940" lon="-115.915690">
        <ele>783.619</ele>
        <time>2018-12-28T16:07:53Z</time>
      </trkpt>
      <trkpt lat="34.727920" lon="-115.916080">
        <ele>782.609</ele>
        <time>2018-12-28T16:08:13Z</time>
      </trkpt>
      <trkpt lat="34.727900" lon="-115.916490">
        <ele>781.819</ele>
        <time>2018-12-28T16:08:33Z</time>
      </trkpt>
      <trkpt lat="34.727880" lon="-115.916950">
        <ele>780.508</ele>
        <time>2018-12-28T16:08:53Z</time>
      </trkpt>
      <trkpt lat="34.727870" lon="-115.917330">
        <ele>776.374</ele>
        <time>2018-12-28T16:09:13Z</time>
      </trkpt>
      <trkpt lat="34.727870" lon="-115.917500">
        <ele>774.492</ele>
        <time>2018-12-28T16:09:33Z</time>
      </trkpt>
      <trkpt lat="34.727880" lon="-115.917960">
        <ele>771.917</ele>
        <time>2018-12-28T16:09:53Z</time>
      </trkpt>
      <trkpt lat="34.727880" lon="-115.918530">
        <ele>770.868</ele>
        <time>2018-12-28T16:10:13Z</time>
      </trkpt>
      <trkpt lat="34.727880" lon="-115.918850">
        <ele>770.783</ele>
        <time>2018-12-28T16:10:33Z</time>
      </trkpt>
      <trkpt lat="34.727880" lon="-115.919070">
        <ele>770.844</ele>
        <time>2018-12-28T16:10:53Z</time>
      </trkpt>
      <trkpt lat="34.727890" lon="-115.919700">
        <ele>772.957</ele>
        <time>2018-12-28T16:11:13Z</time>
      </trkpt>
      <trkpt lat="34.727890" lon="-115.920140">
        <ele>771.637</ele>
        <time>2018-12-28T16:11:33Z</time>
      </trkpt>
      <trkpt lat="34.727890" lon="-115.920500">
        <ele>769.621</ele>
        <time>2018-12-28T16:11:53Z</time>
      </trkpt>
      <trkpt lat="34.727890" lon="-115.920750">
        <ele>769.341</ele>
        <time>2018-12-28T16:12:13Z</time>
      </trkpt>
      <trkpt lat="34.727890" lon="-115.921290">
        <ele>767.305</ele>
        <time>2018-12-28T16:12:33Z</time>
      </trkpt>
      <trkpt lat="34.727900" lon="-115.921900">
        <ele>763.208</ele>
        <time>2018-12-28T16:12:53Z</time>
      </trkpt>
      <trkpt lat="34.727900" lon="-115.922390">
        <ele>762.485</ele>
        <time>2018-12-28T16:13:13Z</time>
      </trkpt>
      <trkpt lat="34.727900" lon="-115.922980">
        <ele>762.363</ele>
        <time>2018-12-28T16:13:33Z</time>
      </trkpt>
      <trkpt lat="34.727900" lon="-115.923940">
        <ele>760.738</ele>
        <time>2018-12-28T16:13:53Z</time>
      </trkpt>
      <trkpt lat="34.727880" lon="-115.924740">
        <ele>760.669</ele>
        <time>2018-12-28T16:14:13Z</time>
      </trkpt>
      <trkpt lat="34.727840" lon="-115.926060">
        <ele>760.644</ele>
        <time>2018-12-28T16:14:33Z</time>
      </trkpt>
      <trkpt lat="34.727800" lon="-115.926920">
        <ele>760.725</ele>
        <time>2018-12-28T16:14:53Z</time>
      </trkpt>
      <trkpt lat="34.727780" lon="-115.927360">
        <ele>760.718</ele>
        <time>2018-12-28T16:15:13Z</time>
      </trkpt>
      <trkpt lat="34.727740" lon="-115.927980">
        <ele>760.798</ele>
        <time>2018-12-28T16:15:33Z</time>
      </trkpt>
      <trkpt lat="34.727710" lon="-115.928390">
        <ele>760.716</ele>
        <time>2018-12-28T16:15:53Z</time>
      </trkpt>
      <trkpt lat="34.727680" lon="-115.928820">
        <ele>760.776</ele>
        <time>2018-12-28T16:16:13Z</time>
      </trkpt>
      <trkpt lat="34.727650" lon="-115.929150">
        <ele>760.713</ele>
        <time>2018-12-28T16:16:33Z</time>
      </trkpt>
      <trkpt lat="34.727600" lon="-115.929900">
        <ele>760.708</ele>
        <time>2018-12-28T16:16:53Z</time>
      </trkpt>
      <trkpt lat="34.727550" lon="-115.930390">
        <ele>760.714</ele>
        <time>2018-12-28T16:17:13Z</time>
      </trkpt>
      <trkpt lat="34.727500" lon="-115.930900">
        <ele>760.072</ele>
        <time>2018-12-28T16:17:33Z</time>
      </trkpt>
      <trkpt lat="34.727470" lon="-115.931170">
        <ele>759.357</ele>
        <time>2018-12-28T16:17:53Z</time>
      </trkpt>
      <trkpt lat="34.727410" lon="-115.931670">
        <ele>756.528</ele>
        <time>2018-12-28T16:18:13Z</time>
      </trkpt>
      <trkpt lat="34.727350" lon="-115.932220">
        <ele>757.373</ele>
        <time>2018-12-28T16:18:33Z</time>
      </trkpt>
      <trkpt lat="34.727300" lon="-115.932660">
        <ele>759.774</ele>
        <time>2018-12-28T16:18:53Z</time>
      </trkpt>
      <trkpt lat="34.727220" lon="-115.933310">
        <ele>757.677</ele>
        <time>2018-12-28T16:19:13Z</time>
      </trkpt>
      <trkpt lat="34.727190" lon="-115.933530">
        <ele>755.877</ele>
        <time>2018-12-28T16:19:33Z</time>
      </trkpt>
      <trkpt lat="34.727130" lon="-115.934020">
        <ele>758.894</ele>
        <time>2018-12-28T16:19:53Z</time>
      </trkpt>
      <trkpt lat="34.727070" lon="-115.934520">
        <ele>759.457</ele>
        <time>2018-12-28T16:20:13Z</time>
      </trkpt>
      <trkpt lat="34.726950" lon="-115.935430">
        <ele>760.222</ele>
        <time>2018-12-28T16:20:33Z</time>
      </trkpt>
      <trkpt lat="34.726850" lon="-115.936230">
        <ele>760.408</ele>
        <time>2018-12-28T16:20:53Z</time>
      </trkpt>
      <trkpt lat="34.726720" lon="-115.937240">
        <ele>758.172</ele>
        <time>2018-12-28T16:21:13Z</time>
      </trkpt>
      <trkpt lat="34.726590" lon="-115.938230">
        <ele>757.240</ele>
        <time>2018-12-28T16:21:33Z</time>
      </trkpt>
      <trkpt lat="34.726520" lon="-115.938780">
        <ele>756.925</ele>
        <time>2018-12-28T16:21:53Z</time>
      </trkpt>
      <trkpt lat="34.726480" lon="-115.939020">
        <ele>756.576</ele>
        <time>2018-12-28T16:22:13Z</time>
      </trkpt>
      <trkpt lat="34.726410" lon="-115.939630">
        <ele>755.581</ele>
        <time>2018-12-28T16:22:33Z</time>
      </trkpt>
      <trkpt lat="34.726350" lon="-115.940100">
        <ele>754.722</ele>
        <time>2018-12-28T16:22:53Z</time>
      </trkpt>
      <trkpt lat="34.726280" lon="-115.940630">
        <ele>753.735</ele>
        <time>2018-12-28T16:23:13Z</time>
      </trkpt>
      <trkpt lat="34.726210" lon="-115.941200">
        <ele>752.765</ele>
        <time>2018-12-28T16:23:33Z</time>
      </trkpt>
      <trkpt lat="34.726100" lon="-115.942070">
        <ele>751.489</ele>
        <time>2018-12-28T16:23:53Z</time>
      </trkpt>
      <trkpt lat="34.725980" lon="-115.942960">
        <ele>749.706</ele>
        <time>2018-12-28T16:24:13Z</time>
      </trkpt>
      <trkpt lat="34.725880" lon="-115.943750">
        <ele>746.026</ele>
        <time>2018-12-28T16:24:33Z</time>
      </trkpt>
      <trkpt lat="34.725770" lon="-115.944640">
        <ele>742.908</ele>
        <time>2018-12-28T16:24:53Z</time>
      </trkpt>
      <trkpt lat="34.725650" lon="-115.945540">
        <ele>740.931</ele>
        <time>2018-12-28T16:25:13Z</time>
      </trkpt>
      <trkpt lat="34.725520" lon="-115.946550">
        <ele>737.869</ele>
        <time>2018-12-28T16:25:33Z</time>
      </trkpt>
      <trkpt lat="34.725450" lon="-115.947120">
        <ele>735.754</ele>
        <time>2018-12-28T16:25:53Z</time>
      </trkpt>
      <trkpt lat="34.725340" lon="-115.947950">
        <ele>733.025</ele>
        <time>2018-12-28T16:26:13Z</time>
      </trkpt>
      <trkpt lat="34.725250" lon="-115.948670">
        <ele>731.280</ele>
        <time>2018-12-28T16:26:33Z</time>
      </trkpt>
      <trkpt lat="34.725130" lon="-115.949580">
        <ele>726.411</ele>
        <time>2018-12-28T16:26:53Z</time>
      </trkpt>
      <trkpt lat="34.725000" lon="-115.950580">
        <ele>721.364</ele>
        <time>2018-12-28T16:27:13Z</time>
      </trkpt>
      <trkpt lat="34.724910" lon="-115.951330">
        <ele>720.884</ele>
        <time>2018-12-28T16:27:33Z</time>
      </trkpt>
      <trkpt lat="34.724720" lon="-115.952790">
        <ele>720.511</ele>
        <time>2018-12-28T16:27:53Z</time>
      </trkpt>
      <trkpt lat="34.724550" lon="-115.954130">
        <ele>712.821</ele>
        <time>2018-12-28T16:28:13Z</time>
      </trkpt>
      <trkpt lat="34.724290" lon="-115.956110">
        <ele>710.703</ele>
        <time>2018-12-28T16:28:33Z</time>
      </trkpt>
      <trkpt lat="34.724250" lon="-115.956470">
        <ele>710.708</ele>
        <time>2018-12-28T16:28:53Z</time>
      </trkpt>
      <trkpt lat="34.724170" lon="-115.957070">
        <ele>710.724</ele>
        <time>2018-12-28T16:29:13Z</time>
      </trkpt>
      <trkpt lat="34.723830" lon="-115.959750">
        <ele>704.112</ele>
        <time>2018-12-28T16:29:33Z</time>
      </trkpt>
      <trkpt lat="34.723790" lon="-115.960000">
        <ele>703.647</ele>
        <time>2018-12-28T16:29:53Z</time>
      </trkpt>
      <trkpt lat="34.723720" lon="-115.960540">
        <ele>702.628</ele>
        <time>2018-12-28T16:30:13Z</time>
      </trkpt>
      <trkpt lat="34.723590" lon="-115.961570">
        <ele>700.883</ele>
        <time>2018-12-28T16:30:33Z</time>
      </trkpt>
      <trkpt lat="34.723510" lon="-115.962170">
        <ele>699.894</ele>
        <time>2018-12-28T16:30:53Z</time>
      </trkpt>
      <trkpt lat="34.723330" lon="-115.963550">
        <ele>696.087</ele>
        <time>2018-12-28T16:31:13Z</time>
      </trkpt>
      <trkpt lat="34.723260" lon="-115.964080">
        <ele>694.297</ele>
        <time>2018-12-28T16:31:33Z</time>
      </trkpt>
      <trkpt lat="34.722910" lon="-115.966870">
        <ele>687.984</ele>
        <time>2018-12-28T16:31:53Z</time>
      </trkpt>
      <trkpt lat="34.722120" lon="-115.973030">
        <ele>670.707</ele>
        <time>2018-12-28T16:32:13Z</time>
      </trkpt>
      <trkpt lat="34.721560" lon="-115.977410">
        <ele>661.517</ele>
        <time>2018-12-28T16:32:33Z</time>
      </trkpt>
      <trkpt lat="34.721400" lon="-115.978640">
        <ele>661.008</ele>
        <time>2018-12-28T16:32:53Z</time>
      </trkpt>
      <trkpt lat="34.721310" lon="-115.979430">
        <ele>663.451</ele>
        <time>2018-12-28T16:33:13Z</time>
      </trkpt>
      <trkpt lat="34.721290" lon="-115.979550">
        <ele>663.749</ele>
        <time>2018-12-28T16:33:33Z</time>
      </trkpt>
      <trkpt lat="34.721260" lon="-115.979920">
        <ele>664.964</ele>
        <time>2018-12-28T16:33:53Z</time>
      </trkpt>
      <trkpt lat="34.721210" lon="-115.980510">
        <ele>667.775</ele>
        <time>2018-12-28T16:34:13Z</time>
      </trkpt>
      <trkpt lat="34.721150" lon="-115.981280">
        <ele>669.430</ele>
        <time>2018-12-28T16:34:33Z</time>
      </trkpt>
      <trkpt lat="34.721130" lon="-115.981770">
        <ele>665.961</ele>
        <time>2018-12-28T16:34:53Z</time>
      </trkpt>
      <trkpt lat="34.721100" lon="-115.982490">
        <ele>660.874</ele>
        <time>2018-12-28T16:35:13Z</time>
      </trkpt>
      <trkpt lat="34.721080" lon="-115.983030">
        <ele>660.864</ele>
        <time>2018-12-28T16:35:33Z</time>
      </trkpt>
      <trkpt lat="34.721060" lon="-115.983620">
        <ele>660.683</ele>
        <time>2018-12-28T16:35:53Z</time>
      </trkpt>
      <trkpt lat="34.721040" lon="-115.984200">
        <ele>660.525</ele>
        <time>2018-12-28T16:36:13Z</time>
      </trkpt>
      <trkpt lat="34.721020" lon="-115.985000">
        <ele>660.117</ele>
        <time>2018-12-28T16:36:33Z</time>
      </trkpt>
      <trkpt lat="34.720990" lon="-115.985720">
        <ele>657.708</ele>
        <time>2018-12-28T16:36:53Z</time>
      </trkpt>
      <trkpt lat="34.720980" lon="-115.985970">
        <ele>655.081</ele>
        <time>2018-12-28T16:37:13Z</time>
      </trkpt>
      <trkpt lat="34.720960" lon="-115.986660">
        <ele>658.069</ele>
        <time>2018-12-28T16:37:33Z</time>
      </trkpt>
      <trkpt lat="34.720940" lon="-115.987370">
        <ele>659.914</ele>
        <time>2018-12-28T16:37:53Z</time>
      </trkpt>
      <trkpt lat="34.720930" lon="-115.987650">
        <ele>660.015</ele>
        <time>2018-12-28T16:38:13Z</time>
      </trkpt>
      <trkpt lat="34.720910" lon="-115.988160">
        <ele>659.770</ele>
        <time>2018-12-28T16:38:33Z</time>
      </trkpt>
      <trkpt lat="34.720900" lon="-115.988470">
        <ele>659.291</ele>
        <time>2018-12-28T16:38:53Z</time>
      </trkpt>
      <trkpt lat="34.720890" lon="-115.988840">
        <ele>658.224</ele>
        <time>2018-12-28T16:39:13Z</time>
      </trkpt>
      <trkpt lat="34.720890" lon="-115.989100">
        <ele>657.624</ele>
        <time>2018-12-28T16:39:33Z</time>
      </trkpt>
      <trkpt lat="34.720890" lon="-115.989340">
        <ele>657.821</ele>
        <time>2018-12-28T16:39:53Z</time>
      </trkpt>
      <trkpt lat="34.720900" lon="-115.989590">
        <ele>657.241</ele>
        <time>2018-12-28T16:40:13Z</time>
      </trkpt>
      <trkpt lat="34.720910" lon="-115.989810">
        <ele>656.605</ele>
        <time>2018-12-28T16:40:33Z</time>
      </trkpt>
      <trkpt lat="34.720920" lon="-115.990070">
        <ele>655.408</ele>
        <time>2018-12-28T16:40:53Z</time>
      </trkpt>
      <trkpt lat="34.720950" lon="-115.990460">
        <ele>654.265</ele>
        <time>2018-12-28T16:41:13Z</time>
      </trkpt>
      <trkpt lat="34.721000" lon="-115.990960">
        <ele>655.473</ele>
        <time>2018-12-28T16:41:33Z</time>
      </trkpt>
      <trkpt lat="34.721050" lon="-115.991280">
        <ele>657.538</ele>
        <time>2018-12-28T16:41:53Z</time>
      </trkpt>
      <trkpt lat="34.721100" lon="-115.991620">
        <ele>659.029</ele>
        <time>2018-12-28T16:42:13Z</time>
      </trkpt>
      <trkpt lat="34.721160" lon="-115.991980">
        <ele>659.534</ele>
        <time>2018-12-28T16:42:33Z</time>
      </trkpt>
      <trkpt lat="34.721210" lon="-115.992180">
        <ele>659.775</ele>
        <time>2018-12-28T16:42:53Z</time>
      </trkpt>
      <trkpt lat="34.721250" lon="-115.992410">
        <ele>659.568</ele>
        <time>2018-12-28T16:43:13Z</time>
      </trkpt>
      <trkpt lat="34.721300" lon="-115.992640">
        <ele>659.328</ele>
        <time>2018-12-28T16:43:33Z</time>
      </trkpt>
      <trkpt lat="34.721370" lon="-115.992920">
        <ele>659.273</ele>
        <time>2018-12-28T16:43:53Z</time>
      </trkpt>
      <trkpt lat="34.721430" lon="-115.993150">
        <ele>658.785</ele>
        <time>2018-12-28T16:44:13Z</time>
      </trkpt>
      <trkpt lat="34.721490" lon="-115.993350">
        <ele>658.813</ele>
        <time>2018-12-28T16:44:33Z</time>
      </trkpt>
      <trkpt lat="34.721530" lon="-115.993520">
        <ele>659.008</ele>
        <time>2018-12-28T16:44:53Z</time>
      </trkpt>
      <trkpt lat="34.721600" lon="-115.993720">
        <ele>660.020</ele>
        <time>2018-12-28T16:45:13Z</time>
      </trkpt>
      <trkpt lat="34.721720" lon="-115.994100">
        <ele>659.818</ele>
        <time>2018-12-28T16:45:33Z</time>
      </trkpt>
      <trkpt lat="34.721840" lon="-115.994480">
        <ele>659.713</ele>
        <time>2018-12-28T16:45:53Z</time>
      </trkpt>
      <trkpt lat="34.721920" lon="-115.994740">
        <ele>659.534</ele>
        <time>2018-12-28T16:46:13Z</time>
      </trkpt>
      <trkpt lat="34.722010" lon="-115.995020">
        <ele>659.629</ele>
        <time>2018-12-28T16:46:33Z</time>
      </trkpt>
      <trkpt lat="34.722080" lon="-115.995240">
        <ele>659.740</ele>
        <time>2018-12-28T16:46:53Z</time>
      </trkpt>
      <trkpt lat="34.722160" lon="-115.995490">
        <ele>659.513</ele>
        <time>2018-12-28T16:47:13Z</time>
      </trkpt>
      <trkpt lat="34.722240" lon="-115.995750">
        <ele>659.113</ele>
        <time>2018-12-28T16:47:33Z</time>
      </trkpt>
      <trkpt lat="34.722300" lon="-115.995930">
        <ele>658.611</ele>
        <time>2018-12-28T16:47:53Z</time>
      </trkpt>
      <trkpt lat="34.722400" lon="-115.996230">
        <ele>658.621</ele>
        <time>2018-12-28T16:48:13Z</time>
      </trkpt>
      <trkpt lat="34.722480" lon="-115.996480">
        <ele>658.503</ele>
        <time>2018-12-28T16:48:33Z</time>
      </trkpt>
      <trkpt lat="34.722560" lon="-115.996740">
        <ele>658.708</ele>
        <time>2018-12-28T16:48:53Z</time>
      </trkpt>
      <trkpt lat="34.722670" lon="-115.997120">
        <ele>658.934</ele>
        <time>2018-12-28T16:49:13Z</time>
      </trkpt>
      <trkpt lat="34.722720" lon="-115.997340">
        <ele>658.722</ele>
        <time>2018-12-28T16:49:33Z</time>
      </trkpt>
      <trkpt lat="34.722780" lon="-115.997590">
        <ele>657.447</ele>
        <time>2018-12-28T16:49:53Z</time>
      </trkpt>
      <trkpt lat="34.722890" lon="-115.998060">
        <ele>655.878</ele>
        <time>2018-12-28T16:50:13Z</time>
      </trkpt>
      <trkpt lat="34.722950" lon="-115.998390">
        <ele>656.173</ele>
        <time>2018-12-28T16:50:33Z</time>
      </trkpt>
      <trkpt lat="34.723000" lon="-115.998720">
        <ele>656.274</ele>
        <time>2018-12-28T16:50:53Z</time>
      </trkpt>
      <trkpt lat="34.723060" lon="-115.999130">
        <ele>656.227</ele>
        <time>2018-12-28T16:51:13Z</time>
      </trkpt>
      <trkpt lat="34.723100" lon="-115.999390">
        <ele>657.087</ele>
        <time>2018-12-28T16:51:33Z</time>
      </trkpt>
      <trkpt lat="34.723130" lon="-115.999670">
        <ele>657.254</ele>
        <time>2018-12-28T16:51:53Z</time>
      </trkpt>
      <trkpt lat="34.723150" lon="-115.999900">
        <ele>656.056</ele>
        <time>2018-12-28T16:52:13Z</time>
      </trkpt>
      <trkpt lat="34.723170" lon="-116.000160">
        <ele>652.911</ele>
        <time>2018-12-28T16:52:33Z</time>
      </trkpt>
      <trkpt lat="34.723190" lon="-116.000560">
        <ele>653.108</ele>
        <time>2018-12-28T16:52:53Z</time>
      </trkpt>
      <trkpt lat="34.723200" lon="-116.000780">
        <ele>653.598</ele>
        <time>2018-12-28T16:53:13Z</time>
      </trkpt>
      <trkpt lat="34.723200" lon="-116.001050">
        <ele>654.416</ele>
        <time>2018-12-28T16:53:33Z</time>
      </trkpt>
      <trkpt lat="34.723200" lon="-116.001490">
        <ele>656.421</ele>
        <time>2018-12-28T16:53:53Z</time>
      </trkpt>
      <trkpt lat="34.723190" lon="-116.001810">
        <ele>657.062</ele>
        <time>2018-12-28T16:54:13Z</time>
      </trkpt>
      <trkpt lat="34.723180" lon="-116.002120">
        <ele>657.967</ele>
        <time>2018-12-28T16:54:33Z</time>
      </trkpt>
      <trkpt lat="34.723150" lon="-116.002580">
        <ele>659.878</ele>
        <time>2018-12-28T16:54:53Z</time>
      </trkpt>
      <trkpt lat="34.723120" lon="-116.002950">
        <ele>660.961</ele>
        <time>2018-12-28T16:55:13Z</time>
      </trkpt>
      <trkpt lat="34.723070" lon="-116.003370">
        <ele>660.041</ele>
        <time>2018-12-28T16:55:33Z</time>
      </trkpt>
      <trkpt lat="34.723000" lon="-116.003800">
        <ele>658.342</ele>
        <time>2018-12-28T16:55:53Z</time>
      </trkpt>
      <trkpt lat="34.722970" lon="-116.004010">
        <ele>658.222</ele>
        <time>2018-12-28T16:56:13Z</time>
      </trkpt>
      <trkpt lat="34.722920" lon="-116.004300">
        <ele>659.614</ele>
        <time>2018-12-28T16:56:33Z</time>
      </trkpt>
      <trkpt lat="34.722860" lon="-116.004580">
        <ele>660.308</ele>
        <time>2018-12-28T16:56:53Z</time>
      </trkpt>
      <trkpt lat="34.722780" lon="-116.004940">
        <ele>658.857</ele>
        <time>2018-12-28T16:57:13Z</time>
      </trkpt>
      <trkpt lat="34.722730" lon="-116.005130">
        <ele>657.835</ele>
        <time>2018-12-28T16:57:33Z</time>
      </trkpt>
      <trkpt lat="34.722660" lon="-116.005400">
        <ele>655.970</ele>
        <time>2018-12-28T16:57:53Z</time>
      </trkpt>
      <trkpt lat="34.722620" lon="-116.005550">
        <ele>654.821</ele>
        <time>2018-12-28T16:58:13Z</time>
      </trkpt>
      <trkpt lat="34.722560" lon="-116.005770">
        <ele>652.876</ele>
        <time>2018-12-28T16:58:33Z</time>
      </trkpt>
      <trkpt lat="34.722510" lon="-116.005920">
        <ele>650.977</ele>
        <time>2018-12-28T16:58:53Z</time>
      </trkpt>
      <trkpt lat="34.722460" lon="-116.006100">
        <ele>649.190</ele>
        <time>2018-12-28T16:59:13Z</time>
      </trkpt>
      <trkpt lat="34.722380" lon="-116.006330">
        <ele>647.120</ele>
        <time>2018-12-28T16:59:33Z</time>
      </trkpt>
      <trkpt lat="34.722330" lon="-116.006480">
        <ele>645.837</ele>
        <time>2018-12-28T16:59:53Z</time>
      </trkpt>
      <trkpt lat="34.722200" lon="-116.006850">
        <ele>642.949</ele>
        <time>2018-12-28T17:00:13Z</time>
      </trkpt>
      <trkpt lat="34.722130" lon="-116.007040">
        <ele>641.413</ele>
        <time>2018-12-28T17:00:33Z</time>
      </trkpt>
      <trkpt lat="34.721960" lon="-116.007490">
        <ele>638.208</ele>
        <time>2018-12-28T17:00:53Z</time>
      </trkpt>
      <trkpt lat="34.721750" lon="-116.008080">
        <ele>635.216</ele>
        <time>2018-12-28T17:01:13Z</time>
      </trkpt>
      <trkpt lat="34.721610" lon="-116.008440">
        <ele>634.184</ele>
        <time>2018-12-28T17:01:33Z</time>
      </trkpt>
      <trkpt lat="34.721400" lon="-116.009010">
        <ele>633.419</ele>
        <time>2018-12-28T17:01:53Z</time>
      </trkpt>
      <trkpt lat="34.721260" lon="-116.009380">
        <ele>632.780</ele>
        <time>2018-12-28T17:02:13Z</time>
      </trkpt>
      <trkpt lat="34.721110" lon="-116.009760">
        <ele>632.685</ele>
        <time>2018-12-28T17:02:33Z</time>
      </trkpt>
      <trkpt lat="34.720790" lon="-116.010600">
        <ele>643.576</ele>
        <time>2018-12-28T17:02:53Z</time>
      </trkpt>
      <trkpt lat="34.720610" lon="-116.011090">
        <ele>636.539</ele>
        <time>2018-12-28T17:03:13Z</time>
      </trkpt>
      <trkpt lat="34.720480" lon="-116.011440">
        <ele>633.919</ele>
        <time>2018-12-28T17:03:33Z</time>
      </trkpt>
      <trkpt lat="34.720360" lon="-116.011750">
        <ele>634.564</ele>
        <time>2018-12-28T17:03:53Z</time>
      </trkpt>
      <trkpt lat="34.720100" lon="-116.012430">
        <ele>644.606</ele>
        <time>2018-12-28T17:04:13Z</time>
      </trkpt>
      <trkpt lat="34.719660" lon="-116.013600">
        <ele>646.516</ele>
        <time>2018-12-28T17:04:33Z</time>
      </trkpt>
      <trkpt lat="34.719390" lon="-116.014350">
        <ele>642.508</ele>
        <time>2018-12-28T17:04:53Z</time>
      </trkpt>
      <trkpt lat="34.718860" lon="-116.015760">
        <ele>634.959</ele>
        <time>2018-12-28T17:05:13Z</time>
      </trkpt>
      <trkpt lat="34.718640" lon="-116.016390">
        <ele>634.387</ele>
        <time>2018-12-28T17:05:33Z</time>
      </trkpt>
      <trkpt lat="34.718460" lon="-116.016920">
        <ele>639.962</ele>
        <time>2018-12-28T17:05:53Z</time>
      </trkpt>
      <trkpt lat="34.718380" lon="-116.017160">
        <ele>642.713</ele>
        <time>2018-12-28T17:06:13Z</time>
      </trkpt>
      <trkpt lat="34.718310" lon="-116.017400">
        <ele>644.798</ele>
        <time>2018-12-28T17:06:33Z</time>
      </trkpt>
      <trkpt lat="34.718220" lon="-116.017720">
        <ele>643.559</ele>
        <time>2018-12-28T17:06:53Z</time>
      </trkpt>
      <trkpt lat="34.718160" lon="-116.018000">
        <ele>641.252</ele>
        <time>2018-12-28T17:07:13Z</time>
      </trkpt>
      <trkpt lat="34.718070" lon="-116.018400">
        <ele>637.022</ele>
        <time>2018-12-28T17:07:33Z</time>
      </trkpt>
      <trkpt lat="34.718030" lon="-116.018600">
        <ele>634.811</ele>
        <time>2018-12-28T17:07:53Z</time>
      </trkpt>
      <trkpt lat="34.717990" lon="-116.018820">
        <ele>632.421</ele>
        <time>2018-12-28T17:08:13Z</time>
      </trkpt>
      <trkpt lat="34.717930" lon="-116.019130">
        <ele>629.103</ele>
        <time>2018-12-28T17:08:33Z</time>
      </trkpt>
      <trkpt lat="34.717890" lon="-116.019360">
        <ele>626.508</ele>
        <time>2018-12-28T17:08:53Z</time>
      </trkpt>
      <trkpt lat="34.717800" lon="-116.020000">
        <ele>621.294</ele>
        <time>2018-12-28T17:09:13Z</time>
      </trkpt>
      <trkpt lat="34.717770" lon="-116.020230">
        <ele>619.992</ele>
        <time>2018-12-28T17:09:33Z</time>
      </trkpt>
      <trkpt lat="34.717720" lon="-116.020680">
        <ele>618.747</ele>
        <time>2018-12-28T17:09:53Z</time>
      </trkpt>
      <trkpt lat="34.717690" lon="-116.021020">
        <ele>618.838</ele>
        <time>2018-12-28T17:10:13Z</time>
      </trkpt>
      <trkpt lat="34.717640" lon="-116.021610">
        <ele>625.233</ele>
        <time>2018-12-28T17:10:33Z</time>
      </trkpt>
      <trkpt lat="34.717630" lon="-116.021760">
        <ele>628.814</ele>
        <time>2018-12-28T17:10:53Z</time>
      </trkpt>
      <trkpt lat="34.717610" lon="-116.022560">
        <ele>636.037</ele>
        <time>2018-12-28T17:11:13Z</time>
      </trkpt>
      <trkpt lat="34.717610" lon="-116.023080">
        <ele>635.557</ele>
        <time>2018-12-28T17:11:33Z</time>
      </trkpt>
      <trkpt lat="34.717630" lon="-116.023520">
        <ele>633.745</ele>
        <time>2018-12-28T17:11:53Z</time>
      </trkpt>
      <trkpt lat="34.717650" lon="-116.023840">
        <ele>633.047</ele>
        <time>2018-12-28T17:12:13Z</time>
      </trkpt>
      <trkpt lat="34.717680" lon="-116.024310">
        <ele>632.311</ele>
        <time>2018-12-28T17:12:33Z</time>
      </trkpt>
      <trkpt lat="34.717740" lon="-116.024900">
        <ele>631.508</ele>
        <time>2018-12-28T17:12:53Z</time>
      </trkpt>
      <trkpt lat="34.717800" lon="-116.025370">
        <ele>630.527</ele>
        <time>2018-12-28T17:13:13Z</time>
      </trkpt>
      <trkpt lat="34.717860" lon="-116.025850">
        <ele>628.775</ele>
        <time>2018-12-28T17:13:33Z</time>
      </trkpt>
      <trkpt lat="34.717970" lon="-116.026500">
        <ele>627.070</ele>
        <time>2018-12-28T17:13:53Z</time>
      </trkpt>
      <trkpt lat="34.718030" lon="-116.026970">
        <ele>627.451</ele>
        <time>2018-12-28T17:14:13Z</time>
      </trkpt>
      <trkpt lat="34.718170" lon="-116.027910">
        <ele>630.196</ele>
        <time>2018-12-28T17:14:33Z</time>
      </trkpt>
      <trkpt lat="34.718230" lon="-116.028570">
        <ele>631.517</ele>
        <time>2018-12-28T17:14:53Z</time>
      </trkpt>
      <trkpt lat="34.718280" lon="-116.029160">
        <ele>633.070</ele>
        <time>2018-12-28T17:15:13Z</time>
      </trkpt>
      <trkpt lat="34.718300" lon="-116.029700">
        <ele>633.040</ele>
        <time>2018-12-28T17:15:33Z</time>
      </trkpt>
      <trkpt lat="34.718310" lon="-116.030030">
        <ele>632.996</ele>
        <time>2018-12-28T17:15:53Z</time>
      </trkpt>
      <trkpt lat="34.718310" lon="-116.030420">
        <ele>632.331</ele>
        <time>2018-12-28T17:16:13Z</time>
      </trkpt>
      <trkpt lat="34.718290" lon="-116.031130">
        <ele>631.924</ele>
        <time>2018-12-28T17:16:33Z</time>
      </trkpt>
      <trkpt lat="34.718270" lon="-116.031580">
        <ele>631.808</ele>
        <time>2018-12-28T17:16:53Z</time>
      </trkpt>
      <trkpt lat="34.718220" lon="-116.032200">
        <ele>631.982</ele>
        <time>2018-12-28T17:17:13Z</time>
      </trkpt>
      <trkpt lat="34.718190" lon="-116.032470">
        <ele>632.350</ele>
        <time>2018-12-28T17:17:33Z</time>
      </trkpt>
      <trkpt lat="34.718160" lon="-116.032740">
        <ele>633.115</ele>
        <time>2018-12-28T17:17:53Z</time>
      </trkpt>
      <trkpt lat="34.718120" lon="-116.033040">
        <ele>633.866</ele>
        <time>2018-12-28T17:18:13Z</time>
      </trkpt>
      <trkpt lat="34.718090" lon="-116.033260">
        <ele>634.241</ele>
        <time>2018-12-28T17:18:33Z</time>
      </trkpt>
      <trkpt lat="34.718030" lon="-116.033610">
        <ele>634.742</ele>
        <time>2018-12-28T17:18:53Z</time>
      </trkpt>
      <trkpt lat="34.717920" lon="-116.034200">
        <ele>634.525</ele>
        <time>2018-12-28T17:19:13Z</time>
      </trkpt>
      <trkpt lat="34.717830" lon="-116.034630">
        <ele>633.635</ele>
        <time>2018-12-28T17:19:33Z</time>
      </trkpt>
      <trkpt lat="34.717710" lon="-116.035190">
        <ele>633.249</ele>
        <time>2018-12-28T17:19:53Z</time>
      </trkpt>
      <trkpt lat="34.717570" lon="-116.035720">
        <ele>632.702</ele>
        <time>2018-12-28T17:20:13Z</time>
      </trkpt>
      <trkpt lat="34.717490" lon="-116.036060">
        <ele>632.222</ele>
        <time>2018-12-28T17:20:33Z</time>
      </trkpt>
      <trkpt lat="34.717380" lon="-116.036490">
        <ele>631.408</ele>
        <time>2018-12-28T17:20:53Z</time>
      </trkpt>
      <trkpt lat="34.717150" lon="-116.037410">
        <ele>629.047</ele>
        <time>2018-12-28T17:21:13Z</time>
      </trkpt>
      <trkpt lat="34.716960" lon="-116.038110">
        <ele>626.655</ele>
        <time>2018-12-28T17:21:33Z</time>
      </trkpt>
      <trkpt lat="34.716640" lon="-116.039360">
        <ele>622.340</ele>
        <time>2018-12-28T17:21:53Z</time>
      </trkpt>
      <trkpt lat="34.716390" lon="-116.040440">
        <ele>621.921</ele>
        <time>2018-12-28T17:22:13Z</time>
      </trkpt>
      <trkpt lat="34.716260" lon="-116.041090">
        <ele>622.096</ele>
        <time>2018-12-28T17:22:33Z</time>
      </trkpt>
      <trkpt lat="34.716180" lon="-116.041540">
        <ele>621.837</ele>
        <time>2018-12-28T17:22:53Z</time>
      </trkpt>
      <trkpt lat="34.716090" lon="-116.042150">
        <ele>621.190</ele>
        <time>2018-12-28T17:23:13Z</time>
      </trkpt>
      <trkpt lat="34.716050" lon="-116.042550">
        <ele>620.670</ele>
        <time>2018-12-28T17:23:33Z</time>
      </trkpt>
      <trkpt lat="34.715990" lon="-116.043100">
        <ele>620.046</ele>
        <time>2018-12-28T17:23:53Z</time>
      </trkpt>
      <trkpt lat="34.715980" lon="-116.043340">
        <ele>619.888</ele>
        <time>2018-12-28T17:24:13Z</time>
      </trkpt>
      <trkpt lat="34.715940" lon="-116.043900">
        <ele>619.116</ele>
        <time>2018-12-28T17:24:33Z</time>
      </trkpt>
      <trkpt lat="34.715930" lon="-116.044240">
        <ele>618.908</ele>
        <time>2018-12-28T17:24:53Z</time>
      </trkpt>
      <trkpt lat="34.715930" lon="-116.044840">
        <ele>618.177</ele>
        <time>2018-12-28T17:25:13Z</time>
      </trkpt>
      <trkpt lat="34.715930" lon="-116.045230">
        <ele>617.415</ele>
        <time>2018-12-28T17:25:33Z</time>
      </trkpt>
      <trkpt lat="34.715950" lon="-116.045630">
        <ele>616.650</ele>
        <time>2018-12-28T17:25:53Z</time>
      </trkpt>
      <trkpt lat="34.715970" lon="-116.046120">
        <ele>615.081</ele>
        <time>2018-12-28T17:26:13Z</time>
      </trkpt>
      <trkpt lat="34.716020" lon="-116.046670">
        <ele>613.366</ele>
        <time>2018-12-28T17:26:33Z</time>
      </trkpt>
      <trkpt lat="34.716040" lon="-116.046890">
        <ele>612.457</ele>
        <time>2018-12-28T17:26:53Z</time>
      </trkpt>
      <trkpt lat="34.716080" lon="-116.047190">
        <ele>611.020</ele>
        <time>2018-12-28T17:27:13Z</time>
      </trkpt>
      <trkpt lat="34.716100" lon="-116.047360">
        <ele>610.290</ele>
        <time>2018-12-28T17:27:33Z</time>
      </trkpt>
      <trkpt lat="34.716150" lon="-116.047730">
        <ele>609.448</ele>
        <time>2018-12-28T17:27:53Z</time>
      </trkpt>
      <trkpt lat="34.716220" lon="-116.048140">
        <ele>608.761</ele>
        <time>2018-12-28T17:28:13Z</time>
      </trkpt>
      <trkpt lat="34.716360" lon="-116.048880">
        <ele>607.717</ele>
        <time>2018-12-28T17:28:33Z</time>
      </trkpt>
      <trkpt lat="34.716510" lon="-116.049510">
        <ele>607.108</ele>
        <time>2018-12-28T17:28:53Z</time>
      </trkpt>
      <trkpt lat="34.716640" lon="-116.050000">
        <ele>606.717</ele>
        <time>2018-12-28T17:29:13Z</time>
      </trkpt>
      <trkpt lat="34.716830" lon="-116.050700">
        <ele>605.835</ele>
        <time>2018-12-28T17:29:33Z</time>
      </trkpt>
      <trkpt lat="34.717080" lon="-116.051600">
        <ele>603.970</ele>
        <time>2018-12-28T17:29:53Z</time>
      </trkpt>
      <trkpt lat="34.717390" lon="-116.052660">
        <ele>601.151</ele>
        <time>2018-12-28T17:30:13Z</time>
      </trkpt>
      <trkpt lat="34.717590" lon="-116.053380">
        <ele>599.326</ele>
        <time>2018-12-28T17:30:33Z</time>
      </trkpt>
      <trkpt lat="34.717720" lon="-116.053850">
        <ele>598.077</ele>
        <time>2018-12-28T17:30:53Z</time>
      </trkpt>
      <trkpt lat="34.717970" lon="-116.054730">
        <ele>596.670</ele>
        <time>2018-12-28T17:31:13Z</time>
      </trkpt>
      <trkpt lat="34.718180" lon="-116.055490">
        <ele>596.130</ele>
        <time>2018-12-28T17:31:33Z</time>
      </trkpt>
      <trkpt lat="34.718350" lon="-116.056090">
        <ele>596.182</ele>
        <time>2018-12-28T17:31:53Z</time>
      </trkpt>
      <trkpt lat="34.718470" lon="-116.056530">
        <ele>595.743</ele>
        <time>2018-12-28T17:32:13Z</time>
      </trkpt>
      <trkpt lat="34.718680" lon="-116.057290">
        <ele>595.717</ele>
        <time>2018-12-28T17:32:33Z</time>
      </trkpt>
      <trkpt lat="34.718860" lon="-116.057900">
        <ele>595.908</ele>
        <time>2018-12-28T17:32:53Z</time>
      </trkpt>
      <trkpt lat="34.719100" lon="-116.058800">
        <ele>595.661</ele>
        <time>2018-12-28T17:33:13Z</time>
      </trkpt>
      <trkpt lat="34.719360" lon="-116.059690">
        <ele>595.589</ele>
        <time>2018-12-28T17:33:33Z</time>
      </trkpt>
      <trkpt lat="34.719570" lon="-116.060450">
        <ele>595.474</ele>
        <time>2018-12-28T17:33:53Z</time>
      </trkpt>
      <trkpt lat="34.719860" lon="-116.061500">
        <ele>595.285</ele>
        <time>2018-12-28T17:34:13Z</time>
      </trkpt>
      <trkpt lat="34.719990" lon="-116.061960">
        <ele>594.960</ele>
        <time>2018-12-28T17:34:33Z</time>
      </trkpt>
      <trkpt lat="34.720170" lon="-116.062540">
        <ele>594.491</ele>
        <time>2018-12-28T17:34:53Z</time>
      </trkpt>
      <trkpt lat="34.720290" lon="-116.062920">
        <ele>593.894</ele>
        <time>2018-12-28T17:35:13Z</time>
      </trkpt>
      <trkpt lat="34.720420" lon="-116.063280">
        <ele>593.454</ele>
        <time>2018-12-28T17:35:33Z</time>
      </trkpt>
      <trkpt lat="34.720540" lon="-116.063640">
        <ele>592.867</ele>
        <time>2018-12-28T17:35:53Z</time>
      </trkpt>
      <trkpt lat="34.720710" lon="-116.064140">
        <ele>591.981</ele>
        <time>2018-12-28T17:36:13Z</time>
      </trkpt>
      <trkpt lat="34.720990" lon="-116.064870">
        <ele>591.719</ele>
        <time>2018-12-28T17:36:33Z</time>
      </trkpt>
      <trkpt lat="34.721130" lon="-116.065240">
        <ele>591.308</ele>
        <time>2018-12-28T17:36:53Z</time>
      </trkpt>
      <trkpt lat="34.721290" lon="-116.065640">
        <ele>591.229</ele>
        <time>2018-12-28T17:37:13Z</time>
      </trkpt>
      <trkpt lat="34.721570" lon="-116.066290">
        <ele>591.137</ele>
        <time>2018-12-28T17:37:33Z</time>
      </trkpt>
      <trkpt lat="34.721820" lon="-116.066850">
        <ele>590.962</ele>
        <time>2018-12-28T17:37:53Z</time>
      </trkpt>
      <trkpt lat="34.722080" lon="-116.067410">
        <ele>591.113</ele>
        <time>2018-12-28T17:38:13Z</time>
      </trkpt>
      <trkpt lat="34.722340" lon="-116.067980">
        <ele>591.198</ele>
        <time>2018-12-28T17:38:33Z</time>
      </trkpt>
      <trkpt lat="34.722580" lon="-116.068510">
        <ele>591.079</ele>
        <time>2018-12-28T17:38:53Z</time>
      </trkpt>
      <trkpt lat="34.722770" lon="-116.068930">
        <ele>590.822</ele>
        <time>2018-12-28T17:39:13Z</time>
      </trkpt>
      <trkpt lat="34.723020" lon="-116.069490">
        <ele>590.712</ele>
        <time>2018-12-28T17:39:33Z</time>
      </trkpt>
      <trkpt lat="34.723280" lon="-116.070040">
        <ele>588.928</ele>
        <time>2018-12-28T17:39:53Z</time>
      </trkpt>
      <trkpt lat="34.723600" lon="-116.070740">
        <ele>584.689</ele>
        <time>2018-12-28T17:40:13Z</time>
      </trkpt>
      <trkpt lat="34.723910" lon="-116.071420">
        <ele>583.017</ele>
        <time>2018-12-28T17:40:33Z</time>
      </trkpt>
      <trkpt lat="34.724290" lon="-116.072250">
        <ele>581.608</ele>
        <time>2018-12-28T17:40:53Z</time>
      </trkpt>
      <trkpt lat="34.724660" lon="-116.073080">
        <ele>580.365</ele>
        <time>2018-12-28T17:41:13Z</time>
      </trkpt>
      <trkpt lat="34.724820" lon="-116.073420">
        <ele>579.673</ele>
        <time>2018-12-28T17:41:33Z</time>
      </trkpt>
      <trkpt lat="34.724980" lon="-116.073780">
        <ele>578.678</ele>
        <time>2018-12-28T17:41:53Z</time>
      </trkpt>
      <trkpt lat="34.725140" lon="-116.074120">
        <ele>577.589</ele>
        <time>2018-12-28T17:42:13Z</time>
      </trkpt>
      <trkpt lat="34.725300" lon="-116.074470">
        <ele>576.594</ele>
        <time>2018-12-28T17:42:33Z</time>
      </trkpt>
      <trkpt lat="34.725610" lon="-116.075160">
        <ele>573.665</ele>
        <time>2018-12-28T17:42:53Z</time>
      </trkpt>
      <trkpt lat="34.725870" lon="-116.075720">
        <ele>572.328</ele>
        <time>2018-12-28T17:43:13Z</time>
      </trkpt>
      <trkpt lat="34.726120" lon="-116.076280">
        <ele>571.218</ele>
        <time>2018-12-28T17:43:33Z</time>
      </trkpt>
      <trkpt lat="34.726250" lon="-116.076570">
        <ele>570.954</ele>
        <time>2018-12-28T17:43:53Z</time>
      </trkpt>
      <trkpt lat="34.726360" lon="-116.076850">
        <ele>570.456</ele>
        <time>2018-12-28T17:44:13Z</time>
      </trkpt>
      <trkpt lat="34.726560" lon="-116.077370">
        <ele>569.111</ele>
        <time>2018-12-28T17:44:33Z</time>
      </trkpt>
      <trkpt lat="34.726720" lon="-116.077840">
        <ele>567.008</ele>
        <time>2018-12-28T17:44:53Z</time>
      </trkpt>
      <trkpt lat="34.726870" lon="-116.078280">
        <ele>564.558</ele>
        <time>2018-12-28T17:45:13Z</time>
      </trkpt>
      <trkpt lat="34.727010" lon="-116.078760">
        <ele>562.586</ele>
        <time>2018-12-28T17:45:33Z</time>
      </trkpt>
      <trkpt lat="34.727070" lon="-116.078970">
        <ele>561.731</ele>
        <time>2018-12-28T17:45:53Z</time>
      </trkpt>
      <trkpt lat="34.727200" lon="-116.079510">
        <ele>561.792</ele>
        <time>2018-12-28T17:46:13Z</time>
      </trkpt>
      <trkpt lat="34.727330" lon="-116.080060">
        <ele>561.537</ele>
        <time>2018-12-28T17:46:33Z</time>
      </trkpt>
      <trkpt lat="34.727410" lon="-116.080480">
        <ele>561.188</ele>
        <time>2018-12-28T17:46:53Z</time>
      </trkpt>
      <trkpt lat="34.727480" lon="-116.080900">
        <ele>560.321</ele>
        <time>2018-12-28T17:47:13Z</time>
      </trkpt>
      <trkpt lat="34.727550" lon="-116.081360">
        <ele>560.481</ele>
        <time>2018-12-28T17:47:33Z</time>
      </trkpt>
      <trkpt lat="34.727590" lon="-116.081600">
        <ele>560.857</ele>
        <time>2018-12-28T17:47:53Z</time>
      </trkpt>
      <trkpt lat="34.727640" lon="-116.082000">
        <ele>560.800</ele>
        <time>2018-12-28T17:48:13Z</time>
      </trkpt>
      <trkpt lat="34.727690" lon="-116.082590">
        <ele>560.120</ele>
        <time>2018-12-28T17:48:33Z</time>
      </trkpt>
      <trkpt lat="34.727710" lon="-116.082810">
        <ele>559.808</ele>
        <time>2018-12-28T17:48:53Z</time>
      </trkpt>
      <trkpt lat="34.727730" lon="-116.083110">
        <ele>559.438</ele>
        <time>2018-12-28T17:49:13Z</time>
      </trkpt>
      <trkpt lat="34.727750" lon="-116.083570">
        <ele>559.236</ele>
        <time>2018-12-28T17:49:33Z</time>
      </trkpt>
      <trkpt lat="34.727760" lon="-116.084050">
        <ele>559.181</ele>
        <time>2018-12-28T17:49:53Z</time>
      </trkpt>
      <trkpt lat="34.727750" lon="-116.084680">
        <ele>558.372</ele>
        <time>2018-12-28T17:50:13Z</time>
      </trkpt>
      <trkpt lat="34.727740" lon="-116.085340">
        <ele>557.087</ele>
        <time>2018-12-28T17:50:33Z</time>
      </trkpt>
      <trkpt lat="34.727720" lon="-116.086260">
        <ele>555.268</ele>
        <time>2018-12-28T17:50:53Z</time>
      </trkpt>
      <trkpt lat="34.727690" lon="-116.087520">
        <ele>552.861</ele>
        <time>2018-12-28T17:51:13Z</time>
      </trkpt>
      <trkpt lat="34.727680" lon="-116.088080">
        <ele>551.731</ele>
        <time>2018-12-28T17:51:33Z</time>
      </trkpt>
      <trkpt lat="34.727670" lon="-116.088970">
        <ele>550.414</ele>
        <time>2018-12-28T17:51:53Z</time>
      </trkpt>
      <trkpt lat="34.727650" lon="-116.089750">
        <ele>548.954</ele>
        <time>2018-12-28T17:52:13Z</time>
      </trkpt>
      <trkpt lat="34.727630" lon="-116.090680">
        <ele>548.609</ele>
        <time>2018-12-28T17:52:33Z</time>
      </trkpt>
      <trkpt lat="34.727630" lon="-116.091020">
        <ele>548.308</ele>
        <time>2018-12-28T17:52:53Z</time>
      </trkpt>
      <trkpt lat="34.727620" lon="-116.091370">
        <ele>548.314</ele>
        <time>2018-12-28T17:53:13Z</time>
      </trkpt>
      <trkpt lat="34.727370" lon="-116.104030">
        <ele>535.412</ele>
        <time>2018-12-28T17:53:33Z</time>
      </trkpt>
      <trkpt lat="34.727010" lon="-116.122180">
        <ele>530.927</ele>
        <time>2018-12-28T17:53:53Z</time>
      </trkpt>
      <trkpt lat="34.726930" lon="-116.125870">
        <ele>526.368</ele>
        <time>2018-12-28T17:54:13Z</time>
      </trkpt>
      <trkpt lat="34.726900" lon="-116.127300">
        <ele>525.673</ele>
        <time>2018-12-28T17:54:33Z</time>
      </trkpt>
      <trkpt lat="34.726840" lon="-116.130220">
        <ele>523.224</ele>
        <time>2018-12-28T17:54:53Z</time>
      </trkpt>
      <trkpt lat="34.726790" lon="-116.132830">
        <ele>522.577</ele>
        <time>2018-12-28T17:55:13Z</time>
      </trkpt>
      <trkpt lat="34.726780" lon="-116.133710">
        <ele>522.527</ele>
        <time>2018-12-28T17:55:33Z</time>
      </trkpt>
      <trkpt lat="34.726750" lon="-116.134890">
        <ele>522.666</ele>
        <time>2018-12-28T17:55:53Z</time>
      </trkpt>
      <trkpt lat="34.726720" lon="-116.136720">
        <ele>522.829</ele>
        <time>2018-12-28T17:56:13Z</time>
      </trkpt>
      <trkpt lat="34.726680" lon="-116.138840">
        <ele>524.821</ele>
        <time>2018-12-28T17:56:33Z</time>
      </trkpt>
      <trkpt lat="34.726640" lon="-116.140600">
        <ele>525.708</ele>
        <time>2018-12-28T17:56:53Z</time>
      </trkpt>
      <trkpt lat="34.726640" lon="-116.140990">
        <ele>526.059</ele>
        <time>2018-12-28T17:57:13Z</time>
      </trkpt>
      <trkpt lat="34.726620" lon="-116.141710">
        <ele>526.197</ele>
        <time>2018-12-28T17:57:33Z</time>
      </trkpt>
      <trkpt lat="34.726560" lon="-116.143260">
        <ele>525.742</ele>
        <time>2018-12-28T17:57:53Z</time>
      </trkpt>
      <trkpt lat="34.726430" lon="-116.146020">
        <ele>524.343</ele>
        <time>2018-12-28T17:58:13Z</time>
      </trkpt>
      <trkpt lat="34.726310" lon="-116.148470">
        <ele>524.988</ele>
        <time>2018-12-28T17:58:33Z</time>
      </trkpt>
      <trkpt lat="34.726020" lon="-116.154850">
        <ele>523.819</ele>
        <time>2018-12-28T17:58:53Z</time>
      </trkpt>
      <trkpt lat="34.725910" lon="-116.157350">
        <ele>526.122</ele>
        <time>2018-12-28T17:59:13Z</time>
      </trkpt>
      <trkpt lat="34.725890" lon="-116.157800">
        <ele>526.352</ele>
        <time>2018-12-28T17:59:33Z</time>
      </trkpt>
      <trkpt lat="34.725660" lon="-116.162840">
        <ele>525.725</ele>
        <time>2018-12-28T17:59:53Z</time>
      </trkpt>
      <trkpt lat="34.725650" lon="-116.163110">
        <ele>525.626</ele>
        <time>2018-12-28T18:00:13Z</time>
      </trkpt>
      <trkpt lat="34.725650" lon="-116.163120">
        <ele>525.608</ele>
        <time>2018-12-28T18:00:33Z</time>
      </trkpt>
      <trkpt lat="34.725630" lon="-116.163410">
        <ele>525.608</ele>
        <time>2018-12-28T18:00:53Z</time>
      </trkpt>
      <trkpt lat="34.725440" lon="-116.167680">
        <ele>523.115</ele>
        <time>2018-12-28T18:01:13Z</time>
      </trkpt>
      <trkpt lat="34.725420" lon="-116.168040">
        <ele>523.193</ele>
        <time>2018-12-28T18:01:33Z</time>
      </trkpt>
      <trkpt lat="34.725420" lon="-116.168130">
        <ele>523.168</ele>
        <time>2018-12-28T18:01:53Z</time>
      </trkpt>
      <trkpt lat="34.725400" lon="-116.168580">
        <ele>523.519</ele>
        <time>2018-12-28T18:02:13Z</time>
      </trkpt>
      <trkpt lat="34.725310" lon="-116.170490">
        <ele>526.294</ele>
        <time>2018-12-28T18:02:33Z</time>
      </trkpt>
      <trkpt lat="34.724900" lon="-116.179340">
        <ele>534.165</ele>
        <time>2018-12-28T18:02:53Z</time>
      </trkpt>
      <trkpt lat="34.724890" lon="-116.179600">
        <ele>534.148</ele>
        <time>2018-12-28T18:03:13Z</time>
      </trkpt>
      <trkpt lat="34.724880" lon="-116.179860">
        <ele>534.598</ele>
        <time>2018-12-28T18:03:33Z</time>
      </trkpt>
      <trkpt lat="34.724820" lon="-116.181310">
        <ele>537.259</ele>
        <time>2018-12-28T18:03:53Z</time>
      </trkpt>
      <trkpt lat="34.724670" lon="-116.184350">
        <ele>539.303</ele>
        <time>2018-12-28T18:04:13Z</time>
      </trkpt>
      <trkpt lat="34.724480" lon="-116.188660">
        <ele>542.523</ele>
        <time>2018-12-28T18:04:33Z</time>
      </trkpt>
      <trkpt lat="34.724370" lon="-116.191050">
        <ele>544.808</ele>
        <time>2018-12-28T18:04:53Z</time>
      </trkpt>
      <trkpt lat="34.724300" lon="-116.192470">
        <ele>546.138</ele>
        <time>2018-12-28T18:05:13Z</time>
      </trkpt>
      <trkpt lat="34.724220" lon="-116.194250">
        <ele>547.296</ele>
        <time>2018-12-28T18:05:33Z</time>
      </trkpt>
      <trkpt lat="34.724200" lon="-116.194720">
        <ele>547.471</ele>
        <time>2018-12-28T18:05:53Z</time>
      </trkpt>
      <trkpt lat="34.724190" lon="-116.195370">
        <ele>547.912</ele>
        <time>2018-12-28T18:06:13Z</time>
      </trkpt>
      <trkpt lat="34.724180" lon="-116.195990">
        <ele>548.277</ele>
        <time>2018-12-28T18:06:33Z</time>
      </trkpt>
      <trkpt lat="34.724190" lon="-116.196710">
        <ele>548.318</ele>
        <time>2018-12-28T18:06:53Z</time>
      </trkpt>
      <trkpt lat="34.724220" lon="-116.197770">
        <ele>548.571</ele>
        <time>2018-12-28T18:07:13Z</time>
      </trkpt>
      <trkpt lat="34.724280" lon="-116.198880">
        <ele>548.231</ele>
        <time>2018-12-28T18:07:33Z</time>
      </trkpt>
      <trkpt lat="34.724370" lon="-116.200640">
        <ele>548.191</ele>
        <time>2018-12-28T18:07:53Z</time>
      </trkpt>
      <trkpt lat="34.724460" lon="-116.202200">
        <ele>548.481</ele>
        <time>2018-12-28T18:08:13Z</time>
      </trkpt>
      <trkpt lat="34.724530" lon="-116.203550">
        <ele>548.919</ele>
        <time>2018-12-28T18:08:33Z</time>
      </trkpt>
      <trkpt lat="34.724620" lon="-116.205260">
        <ele>551.708</ele>
        <time>2018-12-28T18:08:53Z</time>
      </trkpt>
      <trkpt lat="34.724740" lon="-116.207460">
        <ele>555.662</ele>
        <time>2018-12-28T18:09:13Z</time>
      </trkpt>
      <trkpt lat="34.724940" lon="-116.211230">
        <ele>561.380</ele>
        <time>2018-12-28T18:09:33Z</time>
      </trkpt>
      <trkpt lat="34.725010" lon="-116.212620">
        <ele>563.825</ele>
        <time>2018-12-28T18:09:53Z</time>
      </trkpt>
      <trkpt lat="34.725130" lon="-116.214950">
        <ele>567.226</ele>
        <time>2018-12-28T18:10:13Z</time>
      </trkpt>
      <trkpt lat="34.725300" lon="-116.217990">
        <ele>571.231</ele>
        <time>2018-12-28T18:10:33Z</time>
      </trkpt>
      <trkpt lat="34.725500" lon="-116.221760">
        <ele>575.712</ele>
        <time>2018-12-28T18:10:53Z</time>
      </trkpt>
      <trkpt lat="34.725830" lon="-116.227980">
        <ele>584.195</ele>
        <time>2018-12-28T18:11:13Z</time>
      </trkpt>
      <trkpt lat="34.725960" lon="-116.230320">
        <ele>584.725</ele>
        <time>2018-12-28T18:11:33Z</time>
      </trkpt>
      <trkpt lat="34.726020" lon="-116.231320">
        <ele>585.143</ele>
        <time>2018-12-28T18:11:53Z</time>
      </trkpt>
      <trkpt lat="34.726070" lon="-116.232240">
        <ele>585.664</ele>
        <time>2018-12-28T18:12:13Z</time>
      </trkpt>
      <trkpt lat="34.726130" lon="-116.233360">
        <ele>586.510</ele>
        <time>2018-12-28T18:12:33Z</time>
      </trkpt>
      <trkpt lat="34.726170" lon="-116.234050">
        <ele>587.508</ele>
        <time>2018-12-28T18:12:53Z</time>
      </trkpt>
      <trkpt lat="34.726200" lon="-116.234620">
        <ele>588.477</ele>
        <time>2018-12-28T18:13:13Z</time>
      </trkpt>
      <trkpt lat="34.726230" lon="-116.235300">
        <ele>589.615</ele>
        <time>2018-12-28T18:13:33Z</time>
      </trkpt>
      <trkpt lat="34.726270" lon="-116.235940">
        <ele>590.950</ele>
        <time>2018-12-28T18:13:53Z</time>
      </trkpt>
      <trkpt lat="34.726300" lon="-116.236510">
        <ele>592.191</ele>
        <time>2018-12-28T18:14:13Z</time>
      </trkpt>
      <trkpt lat="34.726340" lon="-116.237220">
        <ele>593.476</ele>
        <time>2018-12-28T18:14:33Z</time>
      </trkpt>
      <trkpt lat="34.726360" lon="-116.237680">
        <ele>594.087</ele>
        <time>2018-12-28T18:14:53Z</time>
      </trkpt>
      <trkpt lat="34.726430" lon="-116.238930">
        <ele>595.550</ele>
        <time>2018-12-28T18:15:13Z</time>
      </trkpt>
      <trkpt lat="34.726490" lon="-116.240050">
        <ele>596.980</ele>
        <time>2018-12-28T18:15:33Z</time>
      </trkpt>
      <trkpt lat="34.726570" lon="-116.241360">
        <ele>598.596</ele>
        <time>2018-12-28T18:15:53Z</time>
      </trkpt>
      <trkpt lat="34.726600" lon="-116.241850">
        <ele>599.631</ele>
        <time>2018-12-28T18:16:13Z</time>
      </trkpt>
      <trkpt lat="34.726760" lon="-116.243600">
        <ele>604.124</ele>
        <time>2018-12-28T18:16:33Z</time>
      </trkpt>
      <trkpt lat="34.726930" lon="-116.245170">
        <ele>606.708</ele>
        <time>2018-12-28T18:16:53Z</time>
      </trkpt>
      <trkpt lat="34.727080" lon="-116.246510">
        <ele>608.652</ele>
        <time>2018-12-28T18:17:13Z</time>
      </trkpt>
      <trkpt lat="34.727200" lon="-116.247520">
        <ele>609.740</ele>
        <time>2018-12-28T18:17:33Z</time>
      </trkpt>
      <trkpt lat="34.727390" lon="-116.249090">
        <ele>612.015</ele>
        <time>2018-12-28T18:17:53Z</time>
      </trkpt>
      <trkpt lat="34.727500" lon="-116.250040">
        <ele>613.786</ele>
        <time>2018-12-28T18:18:13Z</time>
      </trkpt>
      <trkpt lat="34.727610" lon="-116.251000">
        <ele>614.731</ele>
        <time>2018-12-28T18:18:33Z</time>
      </trkpt>
      <trkpt lat="34.727780" lon="-116.252380">
        <ele>617.982</ele>
        <time>2018-12-28T18:18:53Z</time>
      </trkpt>
      <trkpt lat="34.728020" lon="-116.254460">
        <ele>621.425</ele>
        <time>2018-12-28T18:19:13Z</time>
      </trkpt>
      <trkpt lat="34.728240" lon="-116.256330">
        <ele>623.315</ele>
        <time>2018-12-28T18:19:33Z</time>
      </trkpt>
      <trkpt lat="34.728430" lon="-116.257950">
        <ele>624.086</ele>
        <time>2018-12-28T18:19:53Z</time>
      </trkpt>
      <trkpt lat="34.728830" lon="-116.261310">
        <ele>625.360</ele>
        <time>2018-12-28T18:20:13Z</time>
      </trkpt>
      <trkpt lat="34.728960" lon="-116.262370">
        <ele>626.426</ele>
        <time>2018-12-28T18:20:33Z</time>
      </trkpt>
      <trkpt lat="34.729050" lon="-116.263130">
        <ele>627.508</ele>
        <time>2018-12-28T18:20:53Z</time>
      </trkpt>
      <trkpt lat="34.729060" lon="-116.263310">
        <ele>627.721</ele>
        <time>2018-12-28T18:21:13Z</time>
      </trkpt>
      <trkpt lat="34.729280" lon="-116.265130">
        <ele>630.129</ele>
        <time>2018-12-28T18:21:33Z</time>
      </trkpt>
      <trkpt lat="34.729630" lon="-116.268080">
        <ele>631.994</ele>
        <time>2018-12-28T18:21:53Z</time>
      </trkpt>
      <trkpt lat="34.729820" lon="-116.269670">
        <ele>633.645</ele>
        <time>2018-12-28T18:22:13Z</time>
      </trkpt>
      <trkpt lat="34.729860" lon="-116.270070">
        <ele>634.110</ele>
        <time>2018-12-28T18:22:33Z</time>
      </trkpt>
      <trkpt lat="34.729900" lon="-116.270390">
        <ele>634.411</ele>
        <time>2018-12-28T18:22:53Z</time>
      </trkpt>
      <trkpt lat="34.729940" lon="-116.270700">
        <ele>634.714</ele>
        <time>2018-12-28T18:23:13Z</time>
      </trkpt>
      <trkpt lat="34.730060" lon="-116.271750">
        <ele>636.784</ele>
        <time>2018-12-28T18:23:33Z</time>
      </trkpt>
      <trkpt lat="34.730230" lon="-116.273160">
        <ele>639.082</ele>
        <time>2018-12-28T18:23:53Z</time>
      </trkpt>
      <trkpt lat="34.730340" lon="-116.274010">
        <ele>640.143</ele>
        <time>2018-12-28T18:24:13Z</time>
      </trkpt>
      <trkpt lat="34.730430" lon="-116.274610">
        <ele>641.317</ele>
        <time>2018-12-28T18:24:33Z</time>
      </trkpt>
      <trkpt lat="34.730500" lon="-116.275060">
        <ele>642.008</ele>
        <time>2018-12-28T18:24:53Z</time>
      </trkpt>
      <trkpt lat="34.730560" lon="-116.275380">
        <ele>642.481</ele>
        <time>2018-12-28T18:25:13Z</time>
      </trkpt>
      <trkpt lat="34.730710" lon="-116.276160">
        <ele>643.429</ele>
        <time>2018-12-28T18:25:33Z</time>
      </trkpt>
      <trkpt lat="34.730790" lon="-116.276560">
        <ele>643.914</ele>
        <time>2018-12-28T18:25:53Z</time>
      </trkpt>
      <trkpt lat="34.730890" lon="-116.276990">
        <ele>644.585</ele>
        <time>2018-12-28T18:26:13Z</time>
      </trkpt>
      <trkpt lat="34.731110" lon="-116.278020">
        <ele>645.860</ele>
        <time>2018-12-28T18:26:33Z</time>
      </trkpt>
      <trkpt lat="34.731220" lon="-116.278480">
        <ele>646.661</ele>
        <time>2018-12-28T18:26:53Z</time>
      </trkpt>
      <trkpt lat="34.731290" lon="-116.278790">
        <ele>647.244</ele>
        <time>2018-12-28T18:27:13Z</time>
      </trkpt>
      <trkpt lat="34.731390" lon="-116.279220">
        <ele>647.854</ele>
        <time>2018-12-28T18:27:33Z</time>
      </trkpt>
      <trkpt lat="34.731470" lon="-116.279580">
        <ele>648.425</ele>
        <time>2018-12-28T18:27:53Z</time>
      </trkpt>
      <trkpt lat="34.732140" lon="-116.282470">
        <ele>653.126</ele>
        <time>2018-12-28T18:28:13Z</time>
      </trkpt>
      <trkpt lat="34.732240" lon="-116.282920">
        <ele>653.908</ele>
        <time>2018-12-28T18:28:33Z</time>
      </trkpt>
      <trkpt lat="34.732350" lon="-116.283400">
        <ele>654.608</ele>
        <time>2018-12-28T18:28:53Z</time>
      </trkpt>
      <trkpt lat="34.732660" lon="-116.284790">
        <ele>656.865</ele>
        <time>2018-12-28T18:29:13Z</time>
      </trkpt>
      <trkpt lat="34.732980" lon="-116.286170">
        <ele>659.313</ele>
        <time>2018-12-28T18:29:33Z</time>
      </trkpt>
      <trkpt lat="34.733140" lon="-116.286890">
        <ele>660.398</ele>
        <time>2018-12-28T18:29:53Z</time>
      </trkpt>
      <trkpt lat="34.733510" lon="-116.288490">
        <ele>662.719</ele>
        <time>2018-12-28T18:30:13Z</time>
      </trkpt>
      <trkpt lat="34.733960" lon="-116.290470">
        <ele>665.824</ele>
        <time>2018-12-28T18:30:33Z</time>
      </trkpt>
      <trkpt lat="34.734180" lon="-116.291410">
        <ele>667.085</ele>
        <time>2018-12-28T18:30:53Z</time>
      </trkpt>
      <trkpt lat="34.734390" lon="-116.292330">
        <ele>668.378</ele>
        <time>2018-12-28T18:31:13Z</time>
      </trkpt>
      <trkpt lat="34.734530" lon="-116.292960">
        <ele>669.198</ele>
        <time>2018-12-28T18:31:33Z</time>
      </trkpt>
      <trkpt lat="34.734670" lon="-116.293540">
        <ele>669.922</ele>
        <time>2018-12-28T18:31:53Z</time>
      </trkpt>
      <trkpt lat="34.734830" lon="-116.294260">
        <ele>671.462</ele>
        <time>2018-12-28T18:32:13Z</time>
      </trkpt>
      <trkpt lat="34.735340" lon="-116.296480">
        <ele>675.308</ele>
        <time>2018-12-28T18:32:33Z</time>
      </trkpt>
      <trkpt lat="34.735620" lon="-116.297700">
        <ele>677.208</ele>
        <time>2018-12-28T18:32:53Z</time>
      </trkpt>
      <trkpt lat="34.735830" lon="-116.298640">
        <ele>678.755</ele>
        <time>2018-12-28T18:33:13Z</time>
      </trkpt>
      <trkpt lat="34.735970" lon="-116.299250">
        <ele>679.733</ele>
        <time>2018-12-28T18:33:33Z</time>
      </trkpt>
      <trkpt lat="34.736150" lon="-116.300030">
        <ele>680.938</ele>
        <time>2018-12-28T18:33:53Z</time>
      </trkpt>
      <trkpt lat="34.736360" lon="-116.300950">
        <ele>682.279</ele>
        <time>2018-12-28T18:34:13Z</time>
      </trkpt>
      <trkpt lat="34.736530" lon="-116.301720">
        <ele>683.614</ele>
        <time>2018-12-28T18:34:33Z</time>
      </trkpt>
      <trkpt lat="34.736680" lon="-116.302360">
        <ele>685.395</ele>
        <time>2018-12-28T18:34:53Z</time>
      </trkpt>
      <trkpt lat="34.736870" lon="-116.303210">
        <ele>688.868</ele>
        <time>2018-12-28T18:35:13Z</time>
      </trkpt>
      <trkpt lat="34.737000" lon="-116.303730">
        <ele>689.678</ele>
        <time>2018-12-28T18:35:33Z</time>
      </trkpt>
      <trkpt lat="34.737070" lon="-116.304080">
        <ele>689.671</ele>
        <time>2018-12-28T18:35:53Z</time>
      </trkpt>
      <trkpt lat="34.737290" lon="-116.305040">
        <ele>687.541</ele>
        <time>2018-12-28T18:36:13Z</time>
      </trkpt>
      <trkpt lat="34.737500" lon="-116.305930">
        <ele>685.415</ele>
        <time>2018-12-28T18:36:33Z</time>
      </trkpt>
      <trkpt lat="34.737590" lon="-116.306360">
        <ele>684.508</ele>
        <time>2018-12-28T18:36:53Z</time>
      </trkpt>
      <trkpt lat="34.737760" lon="-116.307080">
        <ele>683.260</ele>
        <time>2018-12-28T18:37:13Z</time>
      </trkpt>
      <trkpt lat="34.737900" lon="-116.307680">
        <ele>682.528</ele>
        <time>2018-12-28T18:37:33Z</time>
      </trkpt>
      <trkpt lat="34.738080" lon="-116.308420">
        <ele>682.293</ele>
        <time>2018-12-28T18:37:53Z</time>
      </trkpt>
      <trkpt lat="34.738150" lon="-116.308730">
        <ele>682.244</ele>
        <time>2018-12-28T18:38:13Z</time>
      </trkpt>
      <trkpt lat="34.738340" lon="-116.309420">
        <ele>682.599</ele>
        <time>2018-12-28T18:38:33Z</time>
      </trkpt>
      <trkpt lat="34.738470" lon="-116.309860">
        <ele>683.680</ele>
        <time>2018-12-28T18:38:53Z</time>
      </trkpt>
      <trkpt lat="34.738620" lon="-116.310350">
        <ele>684.043</ele>
        <time>2018-12-28T18:39:13Z</time>
      </trkpt>
      <trkpt lat="34.738840" lon="-116.311030">
        <ele>683.893</ele>
        <time>2018-12-28T18:39:33Z</time>
      </trkpt>
      <trkpt lat="34.738920" lon="-116.311300">
        <ele>683.153</ele>
        <time>2018-12-28T18:39:53Z</time>
      </trkpt>
      <trkpt lat="34.739070" lon="-116.311730">
        <ele>682.704</ele>
        <time>2018-12-28T18:40:13Z</time>
      </trkpt>
      <trkpt lat="34.739210" lon="-116.312120">
        <ele>682.614</ele>
        <time>2018-12-28T18:40:33Z</time>
      </trkpt>
      <trkpt lat="34.739270" lon="-116.312270">
        <ele>682.608</ele>
        <time>2018-12-28T18:40:53Z</time>
      </trkpt>
      <trkpt lat="34.739440" lon="-116.312740">
        <ele>682.738</ele>
        <time>2018-12-28T18:41:13Z</time>
      </trkpt>
      <trkpt lat="34.739710" lon="-116.313420">
        <ele>682.616</ele>
        <time>2018-12-28T18:41:33Z</time>
      </trkpt>
      <trkpt lat="34.739970" lon="-116.314030">
        <ele>682.741</ele>
        <time>2018-12-28T18:41:53Z</time>
      </trkpt>
      <trkpt lat="34.740250" lon="-116.314660">
        <ele>683.372</ele>
        <time>2018-12-28T18:42:13Z</time>
      </trkpt>
      <trkpt lat="34.740450" lon="-116.315100">
        <ele>683.717</ele>
        <time>2018-12-28T18:42:33Z</time>
      </trkpt>
      <trkpt lat="34.740820" lon="-116.315860">
        <ele>683.678</ele>
        <time>2018-12-28T18:42:53Z</time>
      </trkpt>
      <trkpt lat="34.741260" lon="-116.316720">
        <ele>683.811</ele>
        <time>2018-12-28T18:43:13Z</time>
      </trkpt>
      <trkpt lat="34.741700" lon="-116.317580">
        <ele>684.231</ele>
        <time>2018-12-28T18:43:33Z</time>
      </trkpt>
      <trkpt lat="34.742020" lon="-116.318220">
        <ele>682.887</ele>
        <time>2018-12-28T18:43:53Z</time>
      </trkpt>
      <trkpt lat="34.742170" lon="-116.318500">
        <ele>683.242</ele>
        <time>2018-12-28T18:44:13Z</time>
      </trkpt>
      <trkpt lat="34.742580" lon="-116.319300">
        <ele>683.426</ele>
        <time>2018-12-28T18:44:33Z</time>
      </trkpt>
      <trkpt lat="34.743210" lon="-116.320520">
        <ele>682.008</ele>
        <time>2018-12-28T18:44:53Z</time>
      </trkpt>
      <trkpt lat="34.743710" lon="-116.321500">
        <ele>681.371</ele>
        <time>2018-12-28T18:45:13Z</time>
      </trkpt>
      <trkpt lat="34.744200" lon="-116.322460">
        <ele>677.569</ele>
        <time>2018-12-28T18:45:33Z</time>
      </trkpt>
      <trkpt lat="34.744340" lon="-116.322720">
        <ele>677.664</ele>
        <time>2018-12-28T18:45:53Z</time>
      </trkpt>
      <trkpt lat="34.744970" lon="-116.323960">
        <ele>678.935</ele>
        <time>2018-12-28T18:46:13Z</time>
      </trkpt>
      <trkpt lat="34.745580" lon="-116.325140">
        <ele>679.240</ele>
        <time>2018-12-28T18:46:33Z</time>
      </trkpt>
      <trkpt lat="34.745900" lon="-116.325780">
        <ele>681.941</ele>
        <time>2018-12-28T18:46:53Z</time>
      </trkpt>
      <trkpt lat="34.746270" lon="-116.326500">
        <ele>682.424</ele>
        <time>2018-12-28T18:47:13Z</time>
      </trkpt>
      <trkpt lat="34.746580" lon="-116.327100">
        <ele>680.384</ele>
        <time>2018-12-28T18:47:33Z</time>
      </trkpt>
      <trkpt lat="34.746980" lon="-116.327890">
        <ele>681.141</ele>
        <time>2018-12-28T18:47:53Z</time>
      </trkpt>
      <trkpt lat="34.747810" lon="-116.329490">
        <ele>681.381</ele>
        <time>2018-12-28T18:48:13Z</time>
      </trkpt>
      <trkpt lat="34.748200" lon="-116.330260">
        <ele>681.409</ele>
        <time>2018-12-28T18:48:33Z</time>
      </trkpt>
      <trkpt lat="34.748540" lon="-116.330920">
        <ele>684.108</ele>
        <time>2018-12-28T18:48:53Z</time>
      </trkpt>
      <trkpt lat="34.749000" lon="-116.331840">
        <ele>675.557</ele>
        <time>2018-12-28T18:49:13Z</time>
      </trkpt>
      <trkpt lat="34.749320" lon="-116.332470">
        <ele>671.755</ele>
        <time>2018-12-28T18:49:33Z</time>
      </trkpt>
      <trkpt lat="34.749980" lon="-116.333730">
        <ele>680.510</ele>
        <time>2018-12-28T18:49:53Z</time>
      </trkpt>
      <trkpt lat="34.750550" lon="-116.334840">
        <ele>676.091</ele>
        <time>2018-12-28T18:50:13Z</time>
      </trkpt>
      <trkpt lat="34.750950" lon="-116.335600">
        <ele>672.966</ele>
        <time>2018-12-28T18:50:33Z</time>
      </trkpt>
      <trkpt lat="34.751110" lon="-116.335900">
        <ele>672.517</ele>
        <time>2018-12-28T18:50:53Z</time>
      </trkpt>
      <trkpt lat="34.751610" lon="-116.336780">
        <ele>672.780</ele>
        <time>2018-12-28T18:51:13Z</time>
      </trkpt>
      <trkpt lat="34.751990" lon="-116.337400">
        <ele>673.020</ele>
        <time>2018-12-28T18:51:33Z</time>
      </trkpt>
      <trkpt lat="34.752320" lon="-116.337920">
        <ele>673.349</ele>
        <time>2018-12-28T18:51:53Z</time>
      </trkpt>
      <trkpt lat="34.752510" lon="-116.338210">
        <ele>673.402</ele>
        <time>2018-12-28T18:52:13Z</time>
      </trkpt>
      <trkpt lat="34.752730" lon="-116.338540">
        <ele>673.722</ele>
        <time>2018-12-28T18:52:33Z</time>
      </trkpt>
      <trkpt lat="34.753110" lon="-116.339080">
        <ele>673.908</ele>
        <time>2018-12-28T18:52:53Z</time>
      </trkpt>
      <trkpt lat="34.753500" lon="-116.339610">
        <ele>673.897</ele>
        <time>2018-12-28T18:53:13Z</time>
      </trkpt>
      <trkpt lat="34.753960" lon="-116.340230">
        <ele>673.475</ele>
        <time>2018-12-28T18:53:33Z</time>
      </trkpt>
      <trkpt lat="34.754480" lon="-116.340930">
        <ele>673.640</ele>
        <time>2018-12-28T18:53:53Z</time>
      </trkpt>
      <trkpt lat="34.754920" lon="-116.341520">
        <ele>674.011</ele>
        <time>2018-12-28T18:54:13Z</time>
      </trkpt>
      <trkpt lat="34.755290" lon="-116.342010">
        <ele>674.286</ele>
        <time>2018-12-28T18:54:33Z</time>
      </trkpt>
      <trkpt lat="34.755890" lon="-116.342810">
        <ele>674.197</ele>
        <time>2018-12-28T18:54:53Z</time>
      </trkpt>
      <trkpt lat="34.756670" lon="-116.343870">
        <ele>672.790</ele>
        <time>2018-12-28T18:55:13Z</time>
      </trkpt>
      <trkpt lat="34.757080" lon="-116.344420">
        <ele>671.820</ele>
        <time>2018-12-28T18:55:33Z</time>
      </trkpt>
      <trkpt lat="34.757550" lon="-116.345050">
        <ele>671.781</ele>
        <time>2018-12-28T18:55:53Z</time>
      </trkpt>
      <trkpt lat="34.757950" lon="-116.345590">
        <ele>671.661</ele>
        <time>2018-12-28T18:56:13Z</time>
      </trkpt>
      <trkpt lat="34.758420" lon="-116.346220">
        <ele>671.617</ele>
        <time>2018-12-28T18:56:33Z</time>
      </trkpt>
      <trkpt lat="34.758620" lon="-116.346480">
        <ele>670.108</ele>
        <time>2018-12-28T18:56:53Z</time>
      </trkpt>
      <trkpt lat="34.758720" lon="-116.346630">
        <ele>668.291</ele>
        <time>2018-12-28T18:57:13Z</time>
      </trkpt>
      <trkpt lat="34.758820" lon="-116.346770">
        <ele>668.589</ele>
        <time>2018-12-28T18:57:33Z</time>
      </trkpt>
      <trkpt lat="34.759040" lon="-116.347050">
        <ele>671.414</ele>
        <time>2018-12-28T18:57:53Z</time>
      </trkpt>
      <trkpt lat="34.759240" lon="-116.347320">
        <ele>671.445</ele>
        <time>2018-12-28T18:58:13Z</time>
      </trkpt>
      <trkpt lat="34.759650" lon="-116.347860">
        <ele>671.310</ele>
        <time>2018-12-28T18:58:33Z</time>
      </trkpt>
      <trkpt lat="34.759830" lon="-116.348120">
        <ele>670.791</ele>
        <time>2018-12-28T18:58:53Z</time>
      </trkpt>
      <trkpt lat="34.760400" lon="-116.348880">
        <ele>670.434</ele>
        <time>2018-12-28T18:59:13Z</time>
      </trkpt>
      <trkpt lat="34.761000" lon="-116.349690">
        <ele>670.454</ele>
        <time>2018-12-28T18:59:33Z</time>
      </trkpt>
      <trkpt lat="34.761300" lon="-116.350100">
        <ele>670.482</ele>
        <time>2018-12-28T18:59:53Z</time>
      </trkpt>
      <trkpt lat="34.761600" lon="-116.350490">
        <ele>670.443</ele>
        <time>2018-12-28T19:00:13Z</time>
      </trkpt>
      <trkpt lat="34.761900" lon="-116.350900">
        <ele>670.417</ele>
        <time>2018-12-28T19:00:33Z</time>
      </trkpt>
      <trkpt lat="34.762090" lon="-116.351150">
        <ele>670.308</ele>
        <time>2018-12-28T19:00:53Z</time>
      </trkpt>
      <trkpt lat="34.763080" lon="-116.352490">
        <ele>670.661</ele>
        <time>2018-12-28T19:01:13Z</time>
      </trkpt>
      <trkpt lat="34.763330" lon="-116.352820">
        <ele>670.719</ele>
        <time>2018-12-28T19:01:33Z</time>
      </trkpt>
      <trkpt lat="34.764840" lon="-116.354850">
        <ele>670.494</ele>
        <time>2018-12-28T19:01:53Z</time>
      </trkpt>
      <trkpt lat="34.766010" lon="-116.356410">
        <ele>668.855</ele>
        <time>2018-12-28T19:02:13Z</time>
      </trkpt>
      <trkpt lat="34.767100" lon="-116.357880">
        <ele>667.590</ele>
        <time>2018-12-28T19:02:33Z</time>
      </trkpt>
      <trkpt lat="34.767960" lon="-116.359040">
        <ele>666.861</ele>
        <time>2018-12-28T19:02:53Z</time>
      </trkpt>
      <trkpt lat="34.768380" lon="-116.359610">
        <ele>666.314</ele>
        <time>2018-12-28T19:03:13Z</time>
      </trkpt>
      <trkpt lat="34.769090" lon="-116.360560">
        <ele>665.324</ele>
        <time>2018-12-28T19:03:33Z</time>
      </trkpt>
      <trkpt lat="34.769790" lon="-116.361510">
        <ele>664.435</ele>
        <time>2018-12-28T19:03:53Z</time>
      </trkpt>
      <trkpt lat="34.769950" lon="-116.361740">
        <ele>664.286</ele>
        <time>2018-12-28T19:04:13Z</time>
      </trkpt>
      <trkpt lat="34.770110" lon="-116.362000">
        <ele>664.014</ele>
        <time>2018-12-28T19:04:33Z</time>
      </trkpt>
      <trkpt lat="34.770300" lon="-116.362300">
        <ele>663.708</ele>
        <time>2018-12-28T19:04:53Z</time>
      </trkpt>
      <trkpt lat="34.770510" lon="-116.362650">
        <ele>663.536</ele>
        <time>2018-12-28T19:05:13Z</time>
      </trkpt>
      <trkpt lat="34.770620" lon="-116.362830">
        <ele>663.354</ele>
        <time>2018-12-28T19:05:33Z</time>
      </trkpt>
      <trkpt lat="34.770790" lon="-116.363130">
        <ele>663.179</ele>
        <time>2018-12-28T19:05:53Z</time>
      </trkpt>
      <trkpt lat="34.770940" lon="-116.363410">
        <ele>662.830</ele>
        <time>2018-12-28T19:06:13Z</time>
      </trkpt>
      <trkpt lat="34.771130" lon="-116.363780">
        <ele>662.425</ele>
        <time>2018-12-28T19:06:33Z</time>
      </trkpt>
      <trkpt lat="34.771330" lon="-116.364170">
        <ele>662.096</ele>
        <time>2018-12-28T19:06:53Z</time>
      </trkpt>
      <trkpt lat="34.771460" lon="-116.364440">
        <ele>661.889</ele>
        <time>2018-12-28T19:07:13Z</time>
      </trkpt>
      <trkpt lat="34.771620" lon="-116.364790">
        <ele>661.419</ele>
        <time>2018-12-28T19:07:33Z</time>
      </trkpt>
      <trkpt lat="34.771680" lon="-116.364940">
        <ele>661.311</ele>
        <time>2018-12-28T19:07:53Z</time>
      </trkpt>
      <trkpt lat="34.771810" lon="-116.365230">
        <ele>661.121</ele>
        <time>2018-12-28T19:08:13Z</time>
      </trkpt>
      <trkpt lat="34.771920" lon="-116.365450">
        <ele>661.003</ele>
        <time>2018-12-28T19:08:33Z</time>
      </trkpt>
      <trkpt lat="34.772060" lon="-116.365770">
        <ele>660.708</ele>
        <time>2018-12-28T19:08:53Z</time>
      </trkpt>
      <trkpt lat="34.772200" lon="-116.366120">
        <ele>660.594</ele>
        <time>2018-12-28T19:09:13Z</time>
      </trkpt>
      <trkpt lat="34.772300" lon="-116.366390">
        <ele>660.332</ele>
        <time>2018-12-28T19:09:33Z</time>
      </trkpt>
      <trkpt lat="34.772470" lon="-116.366860">
        <ele>660.047</ele>
        <time>2018-12-28T19:09:53Z</time>
      </trkpt>
      <trkpt lat="34.772640" lon="-116.367400">
        <ele>659.818</ele>
        <time>2018-12-28T19:10:13Z</time>
      </trkpt>
      <trkpt lat="34.772830" lon="-116.368110">
        <ele>659.523</ele>
        <time>2018-12-28T19:10:33Z</time>
      </trkpt>
      <trkpt lat="34.773020" lon="-116.368810">
        <ele>659.234</ele>
        <time>2018-12-28T19:10:53Z</time>
      </trkpt>
      <trkpt lat="34.773210" lon="-116.369640">
        <ele>659.297</ele>
        <time>2018-12-28T19:11:13Z</time>
      </trkpt>
      <trkpt lat="34.773400" lon="-116.370480">
        <ele>659.227</ele>
        <time>2018-12-28T19:11:33Z</time>
      </trkpt>
      <trkpt lat="34.773470" lon="-116.370830">
        <ele>659.155</ele>
        <time>2018-12-28T19:11:53Z</time>
      </trkpt>
      <trkpt lat="34.773480" lon="-116.370880">
        <ele>659.107</ele>
        <time>2018-12-28T19:12:13Z</time>
      </trkpt>
      <trkpt lat="34.773540" lon="-116.371170">
        <ele>659.117</ele>
        <time>2018-12-28T19:12:33Z</time>
      </trkpt>
      <trkpt lat="34.773660" lon="-116.371750">
        <ele>659.208</ele>
        <time>2018-12-28T19:12:53Z</time>
      </trkpt>
      <trkpt lat="34.773830" lon="-116.372550">
        <ele>659.128</ele>
        <time>2018-12-28T19:13:13Z</time>
      </trkpt>
      <trkpt lat="34.773990" lon="-116.373260">
        <ele>658.956</ele>
        <time>2018-12-28T19:13:33Z</time>
      </trkpt>
      <trkpt lat="34.774280" lon="-116.374490">
        <ele>654.451</ele>
        <time>2018-12-28T19:13:53Z</time>
      </trkpt>
      <trkpt lat="34.774640" lon="-116.376090">
        <ele>651.732</ele>
        <time>2018-12-28T19:14:13Z</time>
      </trkpt>
      <trkpt lat="34.774740" lon="-116.376480">
        <ele>650.717</ele>
        <time>2018-12-28T19:14:33Z</time>
      </trkpt>
      <trkpt lat="34.774810" lon="-116.376750">
        <ele>650.038</ele>
        <time>2018-12-28T19:14:53Z</time>
      </trkpt>
      <trkpt lat="34.775060" lon="-116.377870">
        <ele>647.161</ele>
        <time>2018-12-28T19:15:13Z</time>
      </trkpt>
      <trkpt lat="34.775230" lon="-116.378600">
        <ele>646.921</ele>
        <time>2018-12-28T19:15:33Z</time>
      </trkpt>
      <trkpt lat="34.775510" lon="-116.379840">
        <ele>646.725</ele>
        <time>2018-12-28T19:15:53Z</time>
      </trkpt>
      <trkpt lat="34.775710" lon="-116.380750">
        <ele>646.326</ele>
        <time>2018-12-28T19:16:13Z</time>
      </trkpt>
      <trkpt lat="34.775880" lon="-116.381510">
        <ele>645.308</ele>
        <time>2018-12-28T19:16:33Z</time>
      </trkpt>
      <trkpt lat="34.776160" lon="-116.382720">
        <ele>643.708</ele>
        <time>2018-12-28T19:16:53Z</time>
      </trkpt>
      <trkpt lat="34.776370" lon="-116.383640">
        <ele>642.215</ele>
        <time>2018-12-28T19:17:13Z</time>
      </trkpt>
      <trkpt lat="34.776650" lon="-116.384830">
        <ele>639.643</ele>
        <time>2018-12-28T19:17:33Z</time>
      </trkpt>
      <trkpt lat="34.776860" lon="-116.385760">
        <ele>637.718</ele>
        <time>2018-12-28T19:17:53Z</time>
      </trkpt>
      <trkpt lat="34.777060" lon="-116.386650">
        <ele>635.699</ele>
        <time>2018-12-28T19:18:13Z</time>
      </trkpt>
      <trkpt lat="34.777210" lon="-116.387300">
        <ele>634.724</ele>
        <time>2018-12-28T19:18:33Z</time>
      </trkpt>
      <trkpt lat="34.777680" lon="-116.389380">
        <ele>633.635</ele>
        <time>2018-12-28T19:18:53Z</time>
      </trkpt>
      <trkpt lat="34.778210" lon="-116.391710">
        <ele>631.928</ele>
        <time>2018-12-28T19:19:13Z</time>
      </trkpt>
      <trkpt lat="34.779080" lon="-116.395480">
        <ele>629.318</ele>
        <time>2018-12-28T19:19:33Z</time>
      </trkpt>
      <trkpt lat="34.779430" lon="-116.397020">
        <ele>630.987</ele>
        <time>2018-12-28T19:19:53Z</time>
      </trkpt>
      <trkpt lat="34.779630" lon="-116.397920">
        <ele>632.942</ele>
        <time>2018-12-28T19:20:13Z</time>
      </trkpt>
      <trkpt lat="34.779870" lon="-116.398980">
        <ele>633.326</ele>
        <time>2018-12-28T19:20:33Z</time>
      </trkpt>
      <trkpt lat="34.780050" lon="-116.399740">
        <ele>633.308</ele>
        <time>2018-12-28T19:20:53Z</time>
      </trkpt>
      <trkpt lat="34.780280" lon="-116.400730">
        <ele>632.811</ele>
        <time>2018-12-28T19:21:13Z</time>
      </trkpt>
      <trkpt lat="34.780550" lon="-116.401880">
        <ele>632.319</ele>
        <time>2018-12-28T19:21:33Z</time>
      </trkpt>
      <trkpt lat="34.780750" lon="-116.402790">
        <ele>633.924</ele>
        <time>2018-12-28T19:21:53Z</time>
      </trkpt>
      <trkpt lat="34.781020" lon="-116.404010">
        <ele>634.755</ele>
        <time>2018-12-28T19:22:13Z</time>
      </trkpt>
      <trkpt lat="34.781280" lon="-116.405100">
        <ele>634.770</ele>
        <time>2018-12-28T19:22:33Z</time>
      </trkpt>
      <trkpt lat="34.781500" lon="-116.406150">
        <ele>638.651</ele>
        <time>2018-12-28T19:22:53Z</time>
      </trkpt>
      <trkpt lat="34.781640" lon="-116.406740">
        <ele>638.224</ele>
        <time>2018-12-28T19:23:13Z</time>
      </trkpt>
      <trkpt lat="34.781800" lon="-116.407370">
        <ele>634.784</ele>
        <time>2018-12-28T19:23:33Z</time>
      </trkpt>
      <trkpt lat="34.782010" lon="-116.408320">
        <ele>634.798</ele>
        <time>2018-12-28T19:23:53Z</time>
      </trkpt>
      <trkpt lat="34.782630" lon="-116.411050">
        <ele>633.415</ele>
        <time>2018-12-28T19:24:13Z</time>
      </trkpt>
      <trkpt lat="34.782760" lon="-116.411570">
        <ele>629.526</ele>
        <time>2018-12-28T19:24:33Z</time>
      </trkpt>
      <trkpt lat="34.782940" lon="-116.412310">
        <ele>626.408</ele>
        <time>2018-12-28T19:24:53Z</time>
      </trkpt>
      <trkpt lat="34.783320" lon="-116.414010">
        <ele>626.612</ele>
        <time>2018-12-28T19:25:13Z</time>
      </trkpt>
      <trkpt lat="34.783620" lon="-116.415350">
        <ele>626.930</ele>
        <time>2018-12-28T19:25:33Z</time>
      </trkpt>
      <trkpt lat="34.783770" lon="-116.416010">
        <ele>626.315</ele>
        <time>2018-12-28T19:25:53Z</time>
      </trkpt>
      <trkpt lat="34.783860" lon="-116.416410">
        <ele>626.116</ele>
        <time>2018-12-28T19:26:13Z</time>
      </trkpt>
      <trkpt lat="34.783940" lon="-116.416780">
        <ele>626.211</ele>
        <time>2018-12-28T19:26:33Z</time>
      </trkpt>
      <trkpt lat="34.784020" lon="-116.417210">
        <ele>626.162</ele>
        <time>2018-12-28T19:26:53Z</time>
      </trkpt>
      <trkpt lat="34.784140" lon="-116.417810">
        <ele>625.715</ele>
        <time>2018-12-28T19:27:13Z</time>
      </trkpt>
      <trkpt lat="34.784250" lon="-116.418440">
        <ele>625.925</ele>
        <time>2018-12-28T19:27:33Z</time>
      </trkpt>
      <trkpt lat="34.784290" lon="-116.418730">
        <ele>626.169</ele>
        <time>2018-12-28T19:27:53Z</time>
      </trkpt>
      <trkpt lat="34.784340" lon="-116.419110">
        <ele>626.104</ele>
        <time>2018-12-28T19:28:13Z</time>
      </trkpt>
      <trkpt lat="34.784370" lon="-116.419330">
        <ele>626.324</ele>
        <time>2018-12-28T19:28:33Z</time>
      </trkpt>
      <trkpt lat="34.784380" lon="-116.419400">
        <ele>626.408</ele>
        <time>2018-12-28T19:28:53Z</time>
      </trkpt>
      <trkpt lat="34.784500" lon="-116.420400">
        <ele>626.919</ele>
        <time>2018-12-28T19:29:13Z</time>
      </trkpt>
      <trkpt lat="34.784550" lon="-116.420910">
        <ele>626.837</ele>
        <time>2018-12-28T19:29:33Z</time>
      </trkpt>
      <trkpt lat="34.784610" lon="-116.421350">
        <ele>626.622</ele>
        <time>2018-12-28T19:29:53Z</time>
      </trkpt>
      <trkpt lat="34.784750" lon="-116.422620">
        <ele>623.953</ele>
        <time>2018-12-28T19:30:13Z</time>
      </trkpt>
      <trkpt lat="34.784900" lon="-116.423870">
        <ele>622.218</ele>
        <time>2018-12-28T19:30:33Z</time>
      </trkpt>
      <trkpt lat="34.785030" lon="-116.425010">
        <ele>619.429</ele>
        <time>2018-12-28T19:30:53Z</time>
      </trkpt>
      <trkpt lat="34.785150" lon="-116.426080">
        <ele>617.322</ele>
        <time>2018-12-28T19:31:13Z</time>
      </trkpt>
      <trkpt lat="34.785280" lon="-116.427200">
        <ele>613.262</ele>
        <time>2018-12-28T19:31:33Z</time>
      </trkpt>
      <trkpt lat="34.785410" lon="-116.428280">
        <ele>610.918</ele>
        <time>2018-12-28T19:31:53Z</time>
      </trkpt>
      <trkpt lat="34.785600" lon="-116.429980">
        <ele>608.698</ele>
        <time>2018-12-28T19:32:13Z</time>
      </trkpt>
      <trkpt lat="34.785730" lon="-116.431080">
        <ele>605.417</ele>
        <time>2018-12-28T19:32:33Z</time>
      </trkpt>
      <trkpt lat="34.785840" lon="-116.432050">
        <ele>602.808</ele>
        <time>2018-12-28T19:32:53Z</time>
      </trkpt>
      <trkpt lat="34.785980" lon="-116.433230">
        <ele>600.014</ele>
        <time>2018-12-28T19:33:13Z</time>
      </trkpt>
      <trkpt lat="34.786100" lon="-116.434290">
        <ele>598.772</ele>
        <time>2018-12-28T19:33:33Z</time>
      </trkpt>
      <trkpt lat="34.786220" lon="-116.435290">
        <ele>598.147</ele>
        <time>2018-12-28T19:33:53Z</time>
      </trkpt>
      <trkpt lat="34.786350" lon="-116.436560">
        <ele>598.058</ele>
        <time>2018-12-28T19:34:13Z</time>
      </trkpt>
      <trkpt lat="34.786490" lon="-116.437740">
        <ele>596.193</ele>
        <time>2018-12-28T19:34:33Z</time>
      </trkpt>
      <trkpt lat="34.786630" lon="-116.438930">
        <ele>594.574</ele>
        <time>2018-12-28T19:34:53Z</time>
      </trkpt>
      <trkpt lat="34.786760" lon="-116.440040">
        <ele>593.687</ele>
        <time>2018-12-28T19:35:13Z</time>
      </trkpt>
      <trkpt lat="34.786870" lon="-116.441010">
        <ele>592.697</ele>
        <time>2018-12-28T19:35:33Z</time>
      </trkpt>
      <trkpt lat="34.787010" lon="-116.442290">
        <ele>592.681</ele>
        <time>2018-12-28T19:35:53Z</time>
      </trkpt>
      <trkpt lat="34.787160" lon="-116.443580">
        <ele>592.061</ele>
        <time>2018-12-28T19:36:13Z</time>
      </trkpt>
      <trkpt lat="34.787300" lon="-116.444800">
        <ele>590.817</ele>
        <time>2018-12-28T19:36:33Z</time>
      </trkpt>
      <trkpt lat="34.787460" lon="-116.446130">
        <ele>587.708</ele>
        <time>2018-12-28T19:36:53Z</time>
      </trkpt>
      <trkpt lat="34.787530" lon="-116.446720">
        <ele>587.311</ele>
        <time>2018-12-28T19:37:13Z</time>
      </trkpt>
      <trkpt lat="34.787610" lon="-116.447380">
        <ele>587.349</ele>
        <time>2018-12-28T19:37:33Z</time>
      </trkpt>
      <trkpt lat="34.787700" lon="-116.448240">
        <ele>586.924</ele>
        <time>2018-12-28T19:37:53Z</time>
      </trkpt>
      <trkpt lat="34.787770" lon="-116.448760">
        <ele>586.865</ele>
        <time>2018-12-28T19:38:13Z</time>
      </trkpt>
      <trkpt lat="34.787800" lon="-116.449030">
        <ele>586.710</ele>
        <time>2018-12-28T19:38:33Z</time>
      </trkpt>
      <trkpt lat="34.787820" lon="-116.449220">
        <ele>586.771</ele>
        <time>2018-12-28T19:38:53Z</time>
      </trkpt>
      <trkpt lat="34.787880" lon="-116.449820">
        <ele>586.874</ele>
        <time>2018-12-28T19:39:13Z</time>
      </trkpt>
      <trkpt lat="34.787960" lon="-116.450520">
        <ele>586.764</ele>
        <time>2018-12-28T19:39:33Z</time>
      </trkpt>
      <trkpt lat="34.788040" lon="-116.451210">
        <ele>585.944</ele>
        <time>2018-12-28T19:39:53Z</time>
      </trkpt>
      <trkpt lat="34.788180" lon="-116.452470">
        <ele>585.905</ele>
        <time>2018-12-28T19:40:13Z</time>
      </trkpt>
      <trkpt lat="34.788220" lon="-116.452760">
        <ele>585.615</ele>
        <time>2018-12-28T19:40:33Z</time>
      </trkpt>
      <trkpt lat="34.788230" lon="-116.452820">
        <ele>585.508</ele>
        <time>2018-12-28T19:40:53Z</time>
      </trkpt>
      <trkpt lat="34.788260" lon="-116.453060">
        <ele>585.197</ele>
        <time>2018-12-28T19:41:13Z</time>
      </trkpt>
      <trkpt lat="34.788300" lon="-116.453460">
        <ele>584.285</ele>
        <time>2018-12-28T19:41:33Z</time>
      </trkpt>
      <trkpt lat="34.788430" lon="-116.454510">
        <ele>582.990</ele>
        <time>2018-12-28T19:41:53Z</time>
      </trkpt>
      <trkpt lat="34.788620" lon="-116.456170">
        <ele>581.251</ele>
        <time>2018-12-28T19:42:13Z</time>
      </trkpt>
      <trkpt lat="34.788690" lon="-116.456820">
        <ele>580.456</ele>
        <time>2018-12-28T19:42:33Z</time>
      </trkpt>
      <trkpt lat="34.788700" lon="-116.456890">
        <ele>580.427</ele>
        <time>2018-12-28T19:42:53Z</time>
      </trkpt>
      <trkpt lat="34.788770" lon="-116.457500">
        <ele>580.340</ele>
        <time>2018-12-28T19:43:13Z</time>
      </trkpt>
      <trkpt lat="34.788830" lon="-116.458050">
        <ele>580.030</ele>
        <time>2018-12-28T19:43:33Z</time>
      </trkpt>
      <trkpt lat="34.788870" lon="-116.458400">
        <ele>579.973</ele>
        <time>2018-12-28T19:43:53Z</time>
      </trkpt>
      <trkpt lat="34.788940" lon="-116.459040">
        <ele>579.885</ele>
        <time>2018-12-28T19:44:13Z</time>
      </trkpt>
      <trkpt lat="34.789010" lon="-116.459700">
        <ele>579.813</ele>
        <time>2018-12-28T19:44:33Z</time>
      </trkpt>
      <trkpt lat="34.789040" lon="-116.460000">
        <ele>579.808</ele>
        <time>2018-12-28T19:44:53Z</time>
      </trkpt>
      <trkpt lat="34.789080" lon="-116.460380">
        <ele>579.610</ele>
        <time>2018-12-28T19:45:13Z</time>
      </trkpt>
      <trkpt lat="34.789190" lon="-116.461270">
        <ele>574.928</ele>
        <time>2018-12-28T19:45:33Z</time>
      </trkpt>
      <trkpt lat="34.789290" lon="-116.462120">
        <ele>573.723</ele>
        <time>2018-12-28T19:45:53Z</time>
      </trkpt>
      <trkpt lat="34.789390" lon="-116.463040">
        <ele>573.774</ele>
        <time>2018-12-28T19:46:13Z</time>
      </trkpt>
      <trkpt lat="34.789470" lon="-116.463720">
        <ele>573.779</ele>
        <time>2018-12-28T19:46:33Z</time>
      </trkpt>
      <trkpt lat="34.789530" lon="-116.464210">
        <ele>573.040</ele>
        <time>2018-12-28T19:46:53Z</time>
      </trkpt>
      <trkpt lat="34.789660" lon="-116.465330">
        <ele>571.533</ele>
        <time>2018-12-28T19:47:13Z</time>
      </trkpt>
      <trkpt lat="34.789740" lon="-116.466040">
        <ele>570.763</ele>
        <time>2018-12-28T19:47:33Z</time>
      </trkpt>
      <trkpt lat="34.789840" lon="-116.466930">
        <ele>569.747</ele>
        <time>2018-12-28T19:47:53Z</time>
      </trkpt>
      <trkpt lat="34.789920" lon="-116.467630">
        <ele>569.029</ele>
        <time>2018-12-28T19:48:13Z</time>
      </trkpt>
      <trkpt lat="34.790040" lon="-116.468620">
        <ele>567.821</ele>
        <time>2018-12-28T19:48:33Z</time>
      </trkpt>
      <trkpt lat="34.790210" lon="-116.470180">
        <ele>567.608</ele>
        <time>2018-12-28T19:48:53Z</time>
      </trkpt>
      <trkpt lat="34.790270" lon="-116.470700">
        <ele>567.667</ele>
        <time>2018-12-28T19:49:13Z</time>
      </trkpt>
      <trkpt lat="34.790310" lon="-116.471010">
        <ele>567.435</ele>
        <time>2018-12-28T19:49:33Z</time>
      </trkpt>
      <trkpt lat="34.790330" lon="-116.471180">
        <ele>566.170</ele>
        <time>2018-12-28T19:49:53Z</time>
      </trkpt>
      <trkpt lat="34.790370" lon="-116.471450">
        <ele>563.831</ele>
        <time>2018-12-28T19:50:13Z</time>
      </trkpt>
      <trkpt lat="34.790400" lon="-116.471700">
        <ele>563.196</ele>
        <time>2018-12-28T19:50:33Z</time>
      </trkpt>
      <trkpt lat="34.790480" lon="-116.472380">
        <ele>562.947</ele>
        <time>2018-12-28T19:50:53Z</time>
      </trkpt>
      <trkpt lat="34.790590" lon="-116.473310">
        <ele>562.470</ele>
        <time>2018-12-28T19:51:13Z</time>
      </trkpt>
      <trkpt lat="34.790700" lon="-116.474370">
        <ele>562.620</ele>
        <time>2018-12-28T19:51:33Z</time>
      </trkpt>
      <trkpt lat="34.790800" lon="-116.475220">
        <ele>562.777</ele>
        <time>2018-12-28T19:51:53Z</time>
      </trkpt>
      <trkpt lat="34.790870" lon="-116.475830">
        <ele>562.461</ele>
        <time>2018-12-28T19:52:13Z</time>
      </trkpt>
      <trkpt lat="34.791000" lon="-116.476920">
        <ele>561.727</ele>
        <time>2018-12-28T19:52:33Z</time>
      </trkpt>
      <trkpt lat="34.791070" lon="-116.477550">
        <ele>561.608</ele>
        <time>2018-12-28T19:52:53Z</time>
      </trkpt>
      <trkpt lat="34.791290" lon="-116.479460">
        <ele>561.510</ele>
        <time>2018-12-28T19:53:13Z</time>
      </trkpt>
      <trkpt lat="34.791780" lon="-116.483780">
        <ele>561.338</ele>
        <time>2018-12-28T19:53:33Z</time>
      </trkpt>
      <trkpt lat="34.791930" lon="-116.485000">
        <ele>559.243</ele>
        <time>2018-12-28T19:53:53Z</time>
      </trkpt>
      <trkpt lat="34.791960" lon="-116.485290">
        <ele>558.754</ele>
        <time>2018-12-28T19:54:13Z</time>
      </trkpt>
      <trkpt lat="34.792000" lon="-116.485540">
        <ele>558.459</ele>
        <time>2018-12-28T19:54:33Z</time>
      </trkpt>
      <trkpt lat="34.792040" lon="-116.485780">
        <ele>558.180</ele>
        <time>2018-12-28T19:54:53Z</time>
      </trkpt>
      <trkpt lat="34.792070" lon="-116.485980">
        <ele>558.013</ele>
        <time>2018-12-28T19:55:13Z</time>
      </trkpt>
      <trkpt lat="34.792170" lon="-116.486510">
        <ele>557.663</ele>
        <time>2018-12-28T19:55:33Z</time>
      </trkpt>
      <trkpt lat="34.792250" lon="-116.486890">
        <ele>557.284</ele>
        <time>2018-12-28T19:55:53Z</time>
      </trkpt>
      <trkpt lat="34.792360" lon="-116.487350">
        <ele>556.807</ele>
        <time>2018-12-28T19:56:13Z</time>
      </trkpt>
      <trkpt lat="34.792560" lon="-116.488100">
        <ele>555.917</ele>
        <time>2018-12-28T19:56:33Z</time>
      </trkpt>
      <trkpt lat="34.792810" lon="-116.489020">
        <ele>555.908</ele>
        <time>2018-12-28T19:56:53Z</time>
      </trkpt>
      <trkpt lat="34.793100" lon="-116.490080">
        <ele>555.651</ele>
        <time>2018-12-28T19:57:13Z</time>
      </trkpt>
      <trkpt lat="34.793450" lon="-116.491380">
        <ele>556.029</ele>
        <time>2018-12-28T19:57:33Z</time>
      </trkpt>
      <trkpt lat="34.793900" lon="-116.493010">
        <ele>556.044</ele>
        <time>2018-12-28T19:57:53Z</time>
      </trkpt>
      <trkpt lat="34.794360" lon="-116.494720">
        <ele>556.065</ele>
        <time>2018-12-28T19:58:13Z</time>
      </trkpt>
      <trkpt lat="34.794620" lon="-116.495670">
        <ele>556.050</ele>
        <time>2018-12-28T19:58:33Z</time>
      </trkpt>
      <trkpt lat="34.794830" lon="-116.496440">
        <ele>556.381</ele>
        <time>2018-12-28T19:58:53Z</time>
      </trkpt>
      <trkpt lat="34.795320" lon="-116.498290">
        <ele>558.464</ele>
        <time>2018-12-28T19:59:13Z</time>
      </trkpt>
      <trkpt lat="34.795680" lon="-116.499610">
        <ele>559.124</ele>
        <time>2018-12-28T19:59:33Z</time>
      </trkpt>
      <trkpt lat="34.795930" lon="-116.500510">
        <ele>558.252</ele>
        <time>2018-12-28T19:59:53Z</time>
      </trkpt>
      <trkpt lat="34.796050" lon="-116.500920">
        <ele>557.353</ele>
        <time>2018-12-28T20:00:13Z</time>
      </trkpt>
      <trkpt lat="34.796140" lon="-116.501240">
        <ele>556.408</ele>
        <time>2018-12-28T20:00:33Z</time>
      </trkpt>
      <trkpt lat="34.796220" lon="-116.501520">
        <ele>555.908</ele>
        <time>2018-12-28T20:00:53Z</time>
      </trkpt>
      <trkpt lat="34.796380" lon="-116.502120">
        <ele>556.058</ele>
        <time>2018-12-28T20:01:13Z</time>
      </trkpt>
      <trkpt lat="34.796550" lon="-116.502730">
        <ele>555.446</ele>
        <time>2018-12-28T20:01:33Z</time>
      </trkpt>
      <trkpt lat="34.797080" lon="-116.504690">
        <ele>555.591</ele>
        <time>2018-12-28T20:01:53Z</time>
      </trkpt>
      <trkpt lat="34.797520" lon="-116.506290">
        <ele>554.222</ele>
        <time>2018-12-28T20:02:13Z</time>
      </trkpt>
      <trkpt lat="34.797700" lon="-116.506990">
        <ele>554.967</ele>
        <time>2018-12-28T20:02:33Z</time>
      </trkpt>
      <trkpt lat="34.797870" lon="-116.507600">
        <ele>554.688</ele>
        <time>2018-12-28T20:02:53Z</time>
      </trkpt>
      <trkpt lat="34.797980" lon="-116.508010">
        <ele>554.071</ele>
        <time>2018-12-28T20:03:13Z</time>
      </trkpt>
      <trkpt lat="34.798170" lon="-116.508670">
        <ele>552.431</ele>
        <time>2018-12-28T20:03:33Z</time>
      </trkpt>
      <trkpt lat="34.798370" lon="-116.509410">
        <ele>550.941</ele>
        <time>2018-12-28T20:03:53Z</time>
      </trkpt>
      <trkpt lat="34.798430" lon="-116.509610">
        <ele>550.481</ele>
        <time>2018-12-28T20:04:13Z</time>
      </trkpt>
      <trkpt lat="34.798490" lon="-116.509860">
        <ele>550.009</ele>
        <time>2018-12-28T20:04:33Z</time>
      </trkpt>
      <trkpt lat="34.798530" lon="-116.510020">
        <ele>549.908</ele>
        <time>2018-12-28T20:04:53Z</time>
      </trkpt>
      <trkpt lat="34.798570" lon="-116.510180">
        <ele>549.887</ele>
        <time>2018-12-28T20:05:13Z</time>
      </trkpt>
      <trkpt lat="34.798610" lon="-116.510340">
        <ele>549.985</ele>
        <time>2018-12-28T20:05:33Z</time>
      </trkpt>
      <trkpt lat="34.798640" lon="-116.510500">
        <ele>549.960</ele>
        <time>2018-12-28T20:05:53Z</time>
      </trkpt>
      <trkpt lat="34.798700" lon="-116.510790">
        <ele>550.031</ele>
        <time>2018-12-28T20:06:13Z</time>
      </trkpt>
      <trkpt lat="34.798790" lon="-116.511270">
        <ele>549.726</ele>
        <time>2018-12-28T20:06:33Z</time>
      </trkpt>
      <trkpt lat="34.798990" lon="-116.512360">
        <ele>549.617</ele>
        <time>2018-12-28T20:06:53Z</time>
      </trkpt>
      <trkpt lat="34.799020" lon="-116.512530">
        <ele>549.610</ele>
        <time>2018-12-28T20:07:13Z</time>
      </trkpt>
      <trkpt lat="34.799450" lon="-116.514910">
        <ele>549.540</ele>
        <time>2018-12-28T20:07:33Z</time>
      </trkpt>
      <trkpt lat="34.799580" lon="-116.515620">
        <ele>549.675</ele>
        <time>2018-12-28T20:07:53Z</time>
      </trkpt>
      <trkpt lat="34.799740" lon="-116.516550">
        <ele>550.228</ele>
        <time>2018-12-28T20:08:13Z</time>
      </trkpt>
      <trkpt lat="34.799870" lon="-116.517260">
        <ele>549.920</ele>
        <time>2018-12-28T20:08:33Z</time>
      </trkpt>
      <trkpt lat="34.799920" lon="-116.517520">
        <ele>549.808</ele>
        <time>2018-12-28T20:08:53Z</time>
      </trkpt>
      <trkpt lat="34.800100" lon="-116.518500">
        <ele>549.520</ele>
        <time>2018-12-28T20:09:13Z</time>
      </trkpt>
      <trkpt lat="34.800120" lon="-116.518660">
        <ele>549.518</ele>
        <time>2018-12-28T20:09:33Z</time>
      </trkpt>
      <trkpt lat="34.800220" lon="-116.519200">
        <ele>549.543</ele>
        <time>2018-12-28T20:09:53Z</time>
      </trkpt>
      <trkpt lat="34.800360" lon="-116.520010">
        <ele>549.544</ele>
        <time>2018-12-28T20:10:13Z</time>
      </trkpt>
      <trkpt lat="34.800740" lon="-116.522100">
        <ele>549.329</ele>
        <time>2018-12-28T20:10:33Z</time>
      </trkpt>
      <trkpt lat="34.800840" lon="-116.522660">
        <ele>549.160</ele>
        <time>2018-12-28T20:10:53Z</time>
      </trkpt>
      <trkpt lat="34.800980" lon="-116.523440">
        <ele>547.763</ele>
        <time>2018-12-28T20:11:13Z</time>
      </trkpt>
      <trkpt lat="34.801350" lon="-116.525470">
        <ele>547.123</ele>
        <time>2018-12-28T20:11:33Z</time>
      </trkpt>
      <trkpt lat="34.801600" lon="-116.526850">
        <ele>547.183</ele>
        <time>2018-12-28T20:11:53Z</time>
      </trkpt>
      <trkpt lat="34.801750" lon="-116.527740">
        <ele>547.125</ele>
        <time>2018-12-28T20:12:13Z</time>
      </trkpt>
      <trkpt lat="34.801940" lon="-116.528740">
        <ele>546.617</ele>
        <time>2018-12-28T20:12:33Z</time>
      </trkpt>
      <trkpt lat="34.802090" lon="-116.529630">
        <ele>546.408</ele>
        <time>2018-12-28T20:12:53Z</time>
      </trkpt>
      <trkpt lat="34.802280" lon="-116.530650">
        <ele>546.491</ele>
        <time>2018-12-28T20:13:13Z</time>
      </trkpt>
      <trkpt lat="34.802550" lon="-116.532180">
        <ele>546.189</ele>
        <time>2018-12-28T20:13:33Z</time>
      </trkpt>
      <trkpt lat="34.802680" lon="-116.532890">
        <ele>544.064</ele>
        <time>2018-12-28T20:13:53Z</time>
      </trkpt>
      <trkpt lat="34.802910" lon="-116.534140">
        <ele>543.525</ele>
        <time>2018-12-28T20:14:13Z</time>
      </trkpt>
      <trkpt lat="34.803140" lon="-116.535420">
        <ele>543.850</ele>
        <time>2018-12-28T20:14:33Z</time>
      </trkpt>
      <trkpt lat="34.803300" lon="-116.536320">
        <ele>543.431</ele>
        <time>2018-12-28T20:14:53Z</time>
      </trkpt>
      <trkpt lat="34.803440" lon="-116.537120">
        <ele>543.314</ele>
        <time>2018-12-28T20:15:13Z</time>
      </trkpt>
      <trkpt lat="34.803640" lon="-116.538220">
        <ele>543.254</ele>
        <time>2018-12-28T20:15:33Z</time>
      </trkpt>
      <trkpt lat="34.804110" lon="-116.540870">
        <ele>543.245</ele>
        <time>2018-12-28T20:15:53Z</time>
      </trkpt>
      <trkpt lat="34.804180" lon="-116.541240">
        <ele>543.247</ele>
        <time>2018-12-28T20:16:13Z</time>
      </trkpt>
      <trkpt lat="34.804500" lon="-116.543070">
        <ele>543.211</ele>
        <time>2018-12-28T20:16:33Z</time>
      </trkpt>
      <trkpt lat="34.804650" lon="-116.543860">
        <ele>543.208</ele>
        <time>2018-12-28T20:16:53Z</time>
      </trkpt>
      <trkpt lat="34.805010" lon="-116.545890">
        <ele>543.287</ele>
        <time>2018-12-28T20:17:13Z</time>
      </trkpt>
      <trkpt lat="34.805270" lon="-116.547320">
        <ele>543.275</ele>
        <time>2018-12-28T20:17:33Z</time>
      </trkpt>
      <trkpt lat="34.805400" lon="-116.548070">
        <ele>543.240</ele>
        <time>2018-12-28T20:17:53Z</time>
      </trkpt>
      <trkpt lat="34.805730" lon="-116.549870">
        <ele>543.221</ele>
        <time>2018-12-28T20:18:13Z</time>
      </trkpt>
      <trkpt lat="34.806040" lon="-116.551660">
        <ele>543.256</ele>
        <time>2018-12-28T20:18:33Z</time>
      </trkpt>
      <trkpt lat="34.806250" lon="-116.552780">
        <ele>543.297</ele>
        <time>2018-12-28T20:18:53Z</time>
      </trkpt>
      <trkpt lat="34.806480" lon="-116.554070">
        <ele>543.230</ele>
        <time>2018-12-28T20:19:13Z</time>
      </trkpt>
      <trkpt lat="34.807120" lon="-116.557640">
        <ele>543.240</ele>
        <time>2018-12-28T20:19:33Z</time>
      </trkpt>
      <trkpt lat="34.807770" lon="-116.561220">
        <ele>543.297</ele>
        <time>2018-12-28T20:19:53Z</time>
      </trkpt>
      <trkpt lat="34.808040" lon="-116.562740">
        <ele>543.223</ele>
        <time>2018-12-28T20:20:13Z</time>
      </trkpt>
      <trkpt lat="34.808820" lon="-116.567130">
        <ele>543.225</ele>
        <time>2018-12-28T20:20:33Z</time>
      </trkpt>
      <trkpt lat="34.809200" lon="-116.569230">
        <ele>543.208</ele>
        <time>2018-12-28T20:20:53Z</time>
      </trkpt>
      <trkpt lat="34.809210" lon="-116.569310">
        <ele>543.312</ele>
        <time>2018-12-28T20:21:13Z</time>
      </trkpt>
      <trkpt lat="34.809220" lon="-116.569430">
        <ele>543.310</ele>
        <time>2018-12-28T20:21:33Z</time>
      </trkpt>
      <trkpt lat="34.809230" lon="-116.569480">
        <ele>543.365</ele>
        <time>2018-12-28T20:21:53Z</time>
      </trkpt>
      <trkpt lat="34.809250" lon="-116.569610">
        <ele>543.316</ele>
        <time>2018-12-28T20:22:13Z</time>
      </trkpt>
      <trkpt lat="34.809410" lon="-116.570470">
        <ele>543.371</ele>
        <time>2018-12-28T20:22:33Z</time>
      </trkpt>
      <trkpt lat="34.809870" lon="-116.573010">
        <ele>543.582</ele>
        <time>2018-12-28T20:22:53Z</time>
      </trkpt>
      <trkpt lat="34.810510" lon="-116.576560">
        <ele>543.745</ele>
        <time>2018-12-28T20:23:13Z</time>
      </trkpt>
      <trkpt lat="34.811120" lon="-116.580000">
        <ele>543.985</ele>
        <time>2018-12-28T20:23:33Z</time>
      </trkpt>
      <trkpt lat="34.811540" lon="-116.582360">
        <ele>544.086</ele>
        <time>2018-12-28T20:23:53Z</time>
      </trkpt>
      <trkpt lat="34.811910" lon="-116.584380">
        <ele>544.260</ele>
        <time>2018-12-28T20:24:13Z</time>
      </trkpt>
      <trkpt lat="34.812520" lon="-116.587830">
        <ele>544.226</ele>
        <time>2018-12-28T20:24:33Z</time>
      </trkpt>
      <trkpt lat="34.813000" lon="-116.590480">
        <ele>544.108</ele>
        <time>2018-12-28T20:24:53Z</time>
      </trkpt>
      <trkpt lat="34.813420" lon="-116.592850">
        <ele>543.821</ele>
        <time>2018-12-28T20:25:13Z</time>
      </trkpt>
      <trkpt lat="34.813580" lon="-116.593740">
        <ele>544.179</ele>
        <time>2018-12-28T20:25:33Z</time>
      </trkpt>
      <trkpt lat="34.813950" lon="-116.595800">
        <ele>544.164</ele>
        <time>2018-12-28T20:25:53Z</time>
      </trkpt>
      <trkpt lat="34.814200" lon="-116.597170">
        <ele>544.115</ele>
        <time>2018-12-28T20:26:13Z</time>
      </trkpt>
      <trkpt lat="34.814680" lon="-116.599870">
        <ele>545.580</ele>
        <time>2018-12-28T20:26:33Z</time>
      </trkpt>
      <trkpt lat="34.815220" lon="-116.602870">
        <ele>546.331</ele>
        <time>2018-12-28T20:26:53Z</time>
      </trkpt>
      <trkpt lat="34.815490" lon="-116.604350">
        <ele>546.394</ele>
        <time>2018-12-28T20:27:13Z</time>
      </trkpt>
      <trkpt lat="34.815540" lon="-116.604640">
        <ele>546.374</ele>
        <time>2018-12-28T20:27:33Z</time>
      </trkpt>
      <trkpt lat="34.815560" lon="-116.604760">
        <ele>546.315</ele>
        <time>2018-12-28T20:27:53Z</time>
      </trkpt>
      <trkpt lat="34.815610" lon="-116.605050">
        <ele>546.365</ele>
        <time>2018-12-28T20:28:13Z</time>
      </trkpt>
      <trkpt lat="34.815710" lon="-116.605580">
        <ele>546.311</ele>
        <time>2018-12-28T20:28:33Z</time>
      </trkpt>
      <trkpt lat="34.815750" lon="-116.605840">
        <ele>546.308</ele>
        <time>2018-12-28T20:28:53Z</time>
      </trkpt>
      <trkpt lat="34.816150" lon="-116.608070">
        <ele>546.394</ele>
        <time>2018-12-28T20:29:13Z</time>
      </trkpt>
      <trkpt lat="34.816460" lon="-116.609780">
        <ele>546.922</ele>
        <time>2018-12-28T20:29:33Z</time>
      </trkpt>
      <trkpt lat="34.816600" lon="-116.610530">
        <ele>547.157</ele>
        <time>2018-12-28T20:29:53Z</time>
      </trkpt>
      <trkpt lat="34.816760" lon="-116.611430">
        <ele>546.798</ele>
        <time>2018-12-28T20:30:13Z</time>
      </trkpt>
      <trkpt lat="34.817070" lon="-116.613190">
        <ele>546.563</ele>
        <time>2018-12-28T20:30:33Z</time>
      </trkpt>
      <trkpt lat="34.817410" lon="-116.615100">
        <ele>546.834</ele>
        <time>2018-12-28T20:30:53Z</time>
      </trkpt>
      <trkpt lat="34.817500" lon="-116.615600">
        <ele>546.817</ele>
        <time>2018-12-28T20:31:13Z</time>
      </trkpt>
      <trkpt lat="34.817650" lon="-116.616460">
        <ele>546.777</ele>
        <time>2018-12-28T20:31:33Z</time>
      </trkpt>
      <trkpt lat="34.818910" lon="-116.623480">
        <ele>547.356</ele>
        <time>2018-12-28T20:31:53Z</time>
      </trkpt>
      <trkpt lat="34.820190" lon="-116.630620">
        <ele>550.459</ele>
        <time>2018-12-28T20:32:13Z</time>
      </trkpt>
      <trkpt lat="34.825760" lon="-116.661780">
        <ele>555.514</ele>
        <time>2018-12-28T20:32:33Z</time>
      </trkpt>
      <trkpt lat="34.825980" lon="-116.662980">
        <ele>558.708</ele>
        <time>2018-12-28T20:32:53Z</time>
      </trkpt>
      <trkpt lat="34.826000" lon="-116.663080">
        <ele>558.688</ele>
        <time>2018-12-28T20:33:13Z</time>
      </trkpt>
      <trkpt lat="34.826250" lon="-116.664520">
        <ele>557.196</ele>
        <time>2018-12-28T20:33:33Z</time>
      </trkpt>
      <trkpt lat="34.826650" lon="-116.666710">
        <ele>555.831</ele>
        <time>2018-12-28T20:33:53Z</time>
      </trkpt>
      <trkpt lat="34.826780" lon="-116.667430">
        <ele>555.952</ele>
        <time>2018-12-28T20:34:13Z</time>
      </trkpt>
      <trkpt lat="34.826980" lon="-116.668600">
        <ele>556.477</ele>
        <time>2018-12-28T20:34:33Z</time>
      </trkpt>
      <trkpt lat="34.827230" lon="-116.669990">
        <ele>557.058</ele>
        <time>2018-12-28T20:34:53Z</time>
      </trkpt>
      <trkpt lat="34.827310" lon="-116.670420">
        <ele>557.291</ele>
        <time>2018-12-28T20:35:13Z</time>
      </trkpt>
      <trkpt lat="34.827410" lon="-116.671020">
        <ele>557.861</ele>
        <time>2018-12-28T20:35:33Z</time>
      </trkpt>
      <trkpt lat="34.827470" lon="-116.671330">
        <ele>558.149</ele>
        <time>2018-12-28T20:35:53Z</time>
      </trkpt>
      <trkpt lat="34.827510" lon="-116.671590">
        <ele>558.302</ele>
        <time>2018-12-28T20:36:13Z</time>
      </trkpt>
      <trkpt lat="34.827560" lon="-116.671880">
        <ele>558.522</ele>
        <time>2018-12-28T20:36:33Z</time>
      </trkpt>
      <trkpt lat="34.827600" lon="-116.672200">
        <ele>558.508</ele>
        <time>2018-12-28T20:36:53Z</time>
      </trkpt>
      <trkpt lat="34.827630" lon="-116.672410">
        <ele>558.597</ele>
        <time>2018-12-28T20:37:13Z</time>
      </trkpt>
      <trkpt lat="34.827670" lon="-116.672660">
        <ele>558.615</ele>
        <time>2018-12-28T20:37:33Z</time>
      </trkpt>
      <trkpt lat="34.827700" lon="-116.672940">
        <ele>558.660</ele>
        <time>2018-12-28T20:37:53Z</time>
      </trkpt>
      <trkpt lat="34.827750" lon="-116.673300">
        <ele>558.771</ele>
        <time>2018-12-28T20:38:13Z</time>
      </trkpt>
      <trkpt lat="34.827810" lon="-116.673780">
        <ele>558.996</ele>
        <time>2018-12-28T20:38:33Z</time>
      </trkpt>
      <trkpt lat="34.827920" lon="-116.674730">
        <ele>559.497</ele>
        <time>2018-12-28T20:38:53Z</time>
      </trkpt>
      <trkpt lat="34.828040" lon="-116.675680">
        <ele>559.880</ele>
        <time>2018-12-28T20:39:13Z</time>
      </trkpt>
      <trkpt lat="34.828100" lon="-116.676140">
        <ele>560.150</ele>
        <time>2018-12-28T20:39:33Z</time>
      </trkpt>
      <trkpt lat="34.828160" lon="-116.676590">
        <ele>560.321</ele>
        <time>2018-12-28T20:39:53Z</time>
      </trkpt>
      <trkpt lat="34.828210" lon="-116.676950">
        <ele>560.441</ele>
        <time>2018-12-28T20:40:13Z</time>
      </trkpt>
      <trkpt lat="34.828280" lon="-116.677600">
        <ele>560.805</ele>
        <time>2018-12-28T20:40:33Z</time>
      </trkpt>
      <trkpt lat="34.828340" lon="-116.678050">
        <ele>561.108</ele>
        <time>2018-12-28T20:40:53Z</time>
      </trkpt>
      <trkpt lat="34.828460" lon="-116.678990">
        <ele>561.595</ele>
        <time>2018-12-28T20:41:13Z</time>
      </trkpt>
      <trkpt lat="34.828660" lon="-116.680590">
        <ele>561.563</ele>
        <time>2018-12-28T20:41:33Z</time>
      </trkpt>
      <trkpt lat="34.828700" lon="-116.680920">
        <ele>561.528</ele>
        <time>2018-12-28T20:41:53Z</time>
      </trkpt>
      <trkpt lat="34.828920" lon="-116.682620">
        <ele>561.569</ele>
        <time>2018-12-28T20:42:13Z</time>
      </trkpt>
      <trkpt lat="34.829080" lon="-116.683930">
        <ele>561.514</ele>
        <time>2018-12-28T20:42:33Z</time>
      </trkpt>
      <trkpt lat="34.829280" lon="-116.685520">
        <ele>562.975</ele>
        <time>2018-12-28T20:42:53Z</time>
      </trkpt>
      <trkpt lat="34.829370" lon="-116.686270">
        <ele>563.858</ele>
        <time>2018-12-28T20:43:13Z</time>
      </trkpt>
      <trkpt lat="34.829410" lon="-116.686600">
        <ele>564.318</ele>
        <time>2018-12-28T20:43:33Z</time>
      </trkpt>
      <trkpt lat="34.829560" lon="-116.687790">
        <ele>566.878</ele>
        <time>2018-12-28T20:43:53Z</time>
      </trkpt>
      <trkpt lat="34.829660" lon="-116.688670">
        <ele>567.633</ele>
        <time>2018-12-28T20:44:13Z</time>
      </trkpt>
      <trkpt lat="34.829740" lon="-116.689400">
        <ele>567.726</ele>
        <time>2018-12-28T20:44:33Z</time>
      </trkpt>
      <trkpt lat="34.829830" lon="-116.690290">
        <ele>567.708</ele>
        <time>2018-12-28T20:44:53Z</time>
      </trkpt>
      <trkpt lat="34.829840" lon="-116.690470">
        <ele>567.820</ele>
        <time>2018-12-28T20:45:13Z</time>
      </trkpt>
      <trkpt lat="34.829880" lon="-116.690880">
        <ele>568.228</ele>
        <time>2018-12-28T20:45:33Z</time>
      </trkpt>
      <trkpt lat="34.829950" lon="-116.691630">
        <ele>569.933</ele>
        <time>2018-12-28T20:45:53Z</time>
      </trkpt>
      <trkpt lat="34.830150" lon="-116.694090">
        <ele>574.444</ele>
        <time>2018-12-28T20:46:13Z</time>
      </trkpt>
      <trkpt lat="34.830200" lon="-116.694550">
        <ele>574.479</ele>
        <time>2018-12-28T20:46:33Z</time>
      </trkpt>
      <trkpt lat="34.830240" lon="-116.695020">
        <ele>574.350</ele>
        <time>2018-12-28T20:46:53Z</time>
      </trkpt>
      <trkpt lat="34.830360" lon="-116.696450">
        <ele>576.873</ele>
        <time>2018-12-28T20:47:13Z</time>
      </trkpt>
      <trkpt lat="34.830460" lon="-116.697640">
        <ele>580.183</ele>
        <time>2018-12-28T20:47:33Z</time>
      </trkpt>
      <trkpt lat="34.830480" lon="-116.697850">
        <ele>580.579</ele>
        <time>2018-12-28T20:47:53Z</time>
      </trkpt>
      <trkpt lat="34.830550" lon="-116.698650">
        <ele>582.405</ele>
        <time>2018-12-28T20:48:13Z</time>
      </trkpt>
      <trkpt lat="34.830620" lon="-116.699440">
        <ele>584.425</ele>
        <time>2018-12-28T20:48:33Z</time>
      </trkpt>
      <trkpt lat="34.830670" lon="-116.700090">
        <ele>586.108</ele>
        <time>2018-12-28T20:48:53Z</time>
      </trkpt>
      <trkpt lat="34.830690" lon="-116.700250">
        <ele>586.670</ele>
        <time>2018-12-28T20:49:13Z</time>
      </trkpt>
      <trkpt lat="34.830740" lon="-116.700760">
        <ele>587.318</ele>
        <time>2018-12-28T20:49:33Z</time>
      </trkpt>
      <trkpt lat="34.830800" lon="-116.701520">
        <ele>587.843</ele>
        <time>2018-12-28T20:49:53Z</time>
      </trkpt>
      <trkpt lat="34.830850" lon="-116.702040">
        <ele>587.794</ele>
        <time>2018-12-28T20:50:13Z</time>
      </trkpt>
      <trkpt lat="34.830990" lon="-116.703740">
        <ele>589.679</ele>
        <time>2018-12-28T20:50:33Z</time>
      </trkpt>
      <trkpt lat="34.831130" lon="-116.705330">
        <ele>589.510</ele>
        <time>2018-12-28T20:50:53Z</time>
      </trkpt>
      <trkpt lat="34.831230" lon="-116.706510">
        <ele>589.213</ele>
        <time>2018-12-28T20:51:13Z</time>
      </trkpt>
      <trkpt lat="34.831340" lon="-116.707870">
        <ele>589.453</ele>
        <time>2018-12-28T20:51:33Z</time>
      </trkpt>
      <trkpt lat="34.831650" lon="-116.711340">
        <ele>587.172</ele>
        <time>2018-12-28T20:51:53Z</time>
      </trkpt>
      <trkpt lat="34.831940" lon="-116.714730">
        <ele>586.013</ele>
        <time>2018-12-28T20:52:13Z</time>
      </trkpt>
      <trkpt lat="34.832020" lon="-116.715650">
        <ele>585.014</ele>
        <time>2018-12-28T20:52:33Z</time>
      </trkpt>
      <trkpt lat="34.832130" lon="-116.717030">
        <ele>584.908</ele>
        <time>2018-12-28T20:52:53Z</time>
      </trkpt>
      <trkpt lat="34.832160" lon="-116.717300">
        <ele>584.880</ele>
        <time>2018-12-28T20:53:13Z</time>
      </trkpt>
      <trkpt lat="34.832210" lon="-116.717840">
        <ele>584.798</ele>
        <time>2018-12-28T20:53:33Z</time>
      </trkpt>
      <trkpt lat="34.832300" lon="-116.719020">
        <ele>584.783</ele>
        <time>2018-12-28T20:53:53Z</time>
      </trkpt>
      <trkpt lat="34.832460" lon="-116.720780">
        <ele>584.614</ele>
        <time>2018-12-28T20:54:13Z</time>
      </trkpt>
      <trkpt lat="34.832490" lon="-116.721230">
        <ele>585.589</ele>
        <time>2018-12-28T20:54:33Z</time>
      </trkpt>
      <trkpt lat="34.832530" lon="-116.721570">
        <ele>585.970</ele>
        <time>2018-12-28T20:54:53Z</time>
      </trkpt>
      <trkpt lat="34.832560" lon="-116.721980">
        <ele>586.053</ele>
        <time>2018-12-28T20:55:13Z</time>
      </trkpt>
      <trkpt lat="34.832630" lon="-116.722780">
        <ele>586.733</ele>
        <time>2018-12-28T20:55:33Z</time>
      </trkpt>
      <trkpt lat="34.832770" lon="-116.724440">
        <ele>589.243</ele>
        <time>2018-12-28T20:55:53Z</time>
      </trkpt>
      <trkpt lat="34.832950" lon="-116.726430">
        <ele>588.964</ele>
        <time>2018-12-28T20:56:13Z</time>
      </trkpt>
      <trkpt lat="34.833200" lon="-116.729380">
        <ele>591.310</ele>
        <time>2018-12-28T20:56:33Z</time>
      </trkpt>
      <trkpt lat="34.833300" lon="-116.730490">
        <ele>591.608</ele>
        <time>2018-12-28T20:56:53Z</time>
      </trkpt>
      <trkpt lat="34.833350" lon="-116.731040">
        <ele>591.667</ele>
        <time>2018-12-28T20:57:13Z</time>
      </trkpt>
      <trkpt lat="34.833550" lon="-116.733350">
        <ele>590.475</ele>
        <time>2018-12-28T20:57:33Z</time>
      </trkpt>
      <trkpt lat="34.833670" lon="-116.734750">
        <ele>589.330</ele>
        <time>2018-12-28T20:57:53Z</time>
      </trkpt>
      <trkpt lat="34.833770" lon="-116.735960">
        <ele>588.791</ele>
        <time>2018-12-28T20:58:13Z</time>
      </trkpt>
      <trkpt lat="34.833880" lon="-116.737120">
        <ele>588.066</ele>
        <time>2018-12-28T20:58:33Z</time>
      </trkpt>
      <trkpt lat="34.833960" lon="-116.738130">
        <ele>587.357</ele>
        <time>2018-12-28T20:58:53Z</time>
      </trkpt>
      <trkpt lat="34.834160" lon="-116.740400">
        <ele>588.350</ele>
        <time>2018-12-28T20:59:13Z</time>
      </trkpt>
      <trkpt lat="34.834240" lon="-116.741370">
        <ele>588.170</ele>
        <time>2018-12-28T20:59:33Z</time>
      </trkpt>
      <trkpt lat="34.834310" lon="-116.742170">
        <ele>588.042</ele>
        <time>2018-12-28T20:59:53Z</time>
      </trkpt>
      <trkpt lat="34.834420" lon="-116.743420">
        <ele>589.722</ele>
        <time>2018-12-28T21:00:13Z</time>
      </trkpt>
      <trkpt lat="34.834440" lon="-116.743640">
        <ele>589.814</ele>
        <time>2018-12-28T21:00:33Z</time>
      </trkpt>
      <trkpt lat="34.834690" lon="-116.746530">
        <ele>589.408</ele>
        <time>2018-12-28T21:00:53Z</time>
      </trkpt>
      <trkpt lat="34.834840" lon="-116.748270">
        <ele>589.977</ele>
        <time>2018-12-28T21:01:13Z</time>
      </trkpt>
      <trkpt lat="34.834990" lon="-116.750000">
        <ele>592.825</ele>
        <time>2018-12-28T21:01:33Z</time>
      </trkpt>
      <trkpt lat="34.835130" lon="-116.751600">
        <ele>596.030</ele>
        <time>2018-12-28T21:01:53Z</time>
      </trkpt>
      <trkpt lat="34.835180" lon="-116.752300">
        <ele>597.851</ele>
        <time>2018-12-28T21:02:13Z</time>
      </trkpt>
      <trkpt lat="34.835390" lon="-116.754670">
        <ele>599.116</ele>
        <time>2018-12-28T21:02:33Z</time>
      </trkpt>
      <trkpt lat="34.835490" lon="-116.755800">
        <ele>599.927</ele>
        <time>2018-12-28T21:02:53Z</time>
      </trkpt>
      <trkpt lat="34.835610" lon="-116.757300">
        <ele>600.280</ele>
        <time>2018-12-28T21:03:13Z</time>
      </trkpt>
      <trkpt lat="34.835710" lon="-116.758500">
        <ele>600.790</ele>
        <time>2018-12-28T21:03:33Z</time>
      </trkpt>
      <trkpt lat="34.835770" lon="-116.759130">
        <ele>601.569</ele>
        <time>2018-12-28T21:03:53Z</time>
      </trkpt>
      <trkpt lat="34.835800" lon="-116.759460">
        <ele>602.004</ele>
        <time>2018-12-28T21:04:13Z</time>
      </trkpt>
      <trkpt lat="34.835850" lon="-116.759930">
        <ele>602.324</ele>
        <time>2018-12-28T21:04:33Z</time>
      </trkpt>
      <trkpt lat="34.836060" lon="-116.761570">
        <ele>602.308</ele>
        <time>2018-12-28T21:04:53Z</time>
      </trkpt>
      <trkpt lat="34.836170" lon="-116.762450">
        <ele>602.199</ele>
        <time>2018-12-28T21:05:13Z</time>
      </trkpt>
      <trkpt lat="34.836380" lon="-116.764180">
        <ele>602.957</ele>
        <time>2018-12-28T21:05:33Z</time>
      </trkpt>
      <trkpt lat="34.836520" lon="-116.765210">
        <ele>603.042</ele>
        <time>2018-12-28T21:05:53Z</time>
      </trkpt>
      <trkpt lat="34.836600" lon="-116.765920">
        <ele>603.143</ele>
        <time>2018-12-28T21:06:13Z</time>
      </trkpt>
      <trkpt lat="34.836900" lon="-116.768230">
        <ele>602.768</ele>
        <time>2018-12-28T21:06:33Z</time>
      </trkpt>
      <trkpt lat="34.837020" lon="-116.769240">
        <ele>601.989</ele>
        <time>2018-12-28T21:06:53Z</time>
      </trkpt>
      <trkpt lat="34.837200" lon="-116.770670">
        <ele>601.672</ele>
        <time>2018-12-28T21:07:13Z</time>
      </trkpt>
      <trkpt lat="34.837420" lon="-116.772340">
        <ele>600.332</ele>
        <time>2018-12-28T21:07:33Z</time>
      </trkpt>
      <trkpt lat="34.837500" lon="-116.773040">
        <ele>599.596</ele>
        <time>2018-12-28T21:07:53Z</time>
      </trkpt>
      <trkpt lat="34.837770" lon="-116.775080">
        <ele>596.931</ele>
        <time>2018-12-28T21:08:13Z</time>
      </trkpt>
      <trkpt lat="34.838010" lon="-116.777010">
        <ele>592.224</ele>
        <time>2018-12-28T21:08:33Z</time>
      </trkpt>
      <trkpt lat="34.838060" lon="-116.777390">
        <ele>591.908</ele>
        <time>2018-12-28T21:08:53Z</time>
      </trkpt>
      <trkpt lat="34.838370" lon="-116.779870">
        <ele>588.452</ele>
        <time>2018-12-28T21:09:13Z</time>
      </trkpt>
      <trkpt lat="34.838430" lon="-116.780310">
        <ele>589.630</ele>
        <time>2018-12-28T21:09:33Z</time>
      </trkpt>
      <trkpt lat="34.838590" lon="-116.781550">
        <ele>592.085</ele>
        <time>2018-12-28T21:09:53Z</time>
      </trkpt>
      <trkpt lat="34.838650" lon="-116.782060">
        <ele>592.046</ele>
        <time>2018-12-28T21:10:13Z</time>
      </trkpt>
      <trkpt lat="34.838810" lon="-116.783310">
        <ele>593.281</ele>
        <time>2018-12-28T21:10:33Z</time>
      </trkpt>
      <trkpt lat="34.839010" lon="-116.784800">
        <ele>598.162</ele>
        <time>2018-12-28T21:10:53Z</time>
      </trkpt>
      <trkpt lat="34.839210" lon="-116.786470">
        <ele>599.755</ele>
        <time>2018-12-28T21:11:13Z</time>
      </trkpt>
      <trkpt lat="34.839380" lon="-116.787720">
        <ele>604.265</ele>
        <time>2018-12-28T21:11:33Z</time>
      </trkpt>
      <trkpt lat="34.839450" lon="-116.788370">
        <ele>604.547</ele>
        <time>2018-12-28T21:11:53Z</time>
      </trkpt>
      <trkpt lat="34.839700" lon="-116.790250">
        <ele>611.629</ele>
        <time>2018-12-28T21:12:13Z</time>
      </trkpt>
      <trkpt lat="34.839970" lon="-116.792420">
        <ele>618.421</ele>
        <time>2018-12-28T21:12:33Z</time>
      </trkpt>
      <trkpt lat="34.840120" lon="-116.793500">
        <ele>621.708</ele>
        <time>2018-12-28T21:12:53Z</time>
      </trkpt>
      <trkpt lat="34.840260" lon="-116.794670">
        <ele>622.867</ele>
        <time>2018-12-28T21:13:13Z</time>
      </trkpt>
      <trkpt lat="34.840550" lon="-116.796970">
        <ele>626.115</ele>
        <time>2018-12-28T21:13:33Z</time>
      </trkpt>
      <trkpt lat="34.840650" lon="-116.797700">
        <ele>626.810</ele>
        <time>2018-12-28T21:13:53Z</time>
      </trkpt>
      <trkpt lat="34.840690" lon="-116.797990">
        <ele>626.971</ele>
        <time>2018-12-28T21:14:13Z</time>
      </trkpt>
      <trkpt lat="34.840730" lon="-116.798240">
        <ele>626.936</ele>
        <time>2018-12-28T21:14:33Z</time>
      </trkpt>
      <trkpt lat="34.841330" lon="-116.803040">
        <ele>625.017</ele>
        <time>2018-12-28T21:14:53Z</time>
      </trkpt>
      <trkpt lat="34.841380" lon="-116.803430">
        <ele>622.220</ele>
        <time>2018-12-28T21:15:13Z</time>
      </trkpt>
      <trkpt lat="34.841430" lon="-116.803800">
        <ele>627.990</ele>
        <time>2018-12-28T21:15:33Z</time>
      </trkpt>
      <trkpt lat="34.841610" lon="-116.805230">
        <ele>627.478</ele>
        <time>2018-12-28T21:15:53Z</time>
      </trkpt>
      <trkpt lat="34.841730" lon="-116.806180">
        <ele>623.933</ele>
        <time>2018-12-28T21:16:13Z</time>
      </trkpt>
      <trkpt lat="34.841820" lon="-116.806890">
        <ele>623.026</ele>
        <time>2018-12-28T21:16:33Z</time>
      </trkpt>
      <trkpt lat="34.842010" lon="-116.808400">
        <ele>626.008</ele>
        <time>2018-12-28T21:16:53Z</time>
      </trkpt>
      <trkpt lat="34.842140" lon="-116.809350">
        <ele>626.790</ele>
        <time>2018-12-28T21:17:13Z</time>
      </trkpt>
      <trkpt lat="34.843050" lon="-116.816530">
        <ele>627.978</ele>
        <time>2018-12-28T21:17:33Z</time>
      </trkpt>
      <trkpt lat="34.843900" lon="-116.823260">
        <ele>634.663</ele>
        <time>2018-12-28T21:17:53Z</time>
      </trkpt>
      <trkpt lat="34.845210" lon="-116.833530">
        <ele>651.894</ele>
        <time>2018-12-28T21:18:13Z</time>
      </trkpt>
      <trkpt lat="34.846590" lon="-116.844390">
        <ele>656.379</ele>
        <time>2018-12-28T21:18:33Z</time>
      </trkpt>
      <trkpt lat="34.846680" lon="-116.845140">
        <ele>656.880</ele>
        <time>2018-12-28T21:18:53Z</time>
      </trkpt>
      <trkpt lat="34.846840" lon="-116.846350">
        <ele>654.623</ele>
        <time>2018-12-28T21:19:13Z</time>
      </trkpt>
      <trkpt lat="34.847050" lon="-116.848010">
        <ele>654.793</ele>
        <time>2018-12-28T21:19:33Z</time>
      </trkpt>
      <trkpt lat="34.847550" lon="-116.852050">
        <ele>656.923</ele>
        <time>2018-12-28T21:19:53Z</time>
      </trkpt>
      <trkpt lat="34.847750" lon="-116.853600">
        <ele>657.883</ele>
        <time>2018-12-28T21:20:13Z</time>
      </trkpt>
      <trkpt lat="34.847890" lon="-116.854640">
        <ele>657.811</ele>
        <time>2018-12-28T21:20:33Z</time>
      </trkpt>
      <trkpt lat="34.848120" lon="-116.855930">
        <ele>657.508</ele>
        <time>2018-12-28T21:20:53Z</time>
      </trkpt>
      <trkpt lat="34.848400" lon="-116.857290">
        <ele>655.215</ele>
        <time>2018-12-28T21:21:13Z</time>
      </trkpt>
      <trkpt lat="34.849860" lon="-116.864300">
        <ele>653.113</ele>
        <time>2018-12-28T21:21:33Z</time>
      </trkpt>
      <trkpt lat="34.851070" lon="-116.870160">
        <ele>652.048</ele>
        <time>2018-12-28T21:21:53Z</time>
      </trkpt>
      <trkpt lat="34.851810" lon="-116.873740">
        <ele>651.599</ele>
        <time>2018-12-28T21:22:13Z</time>
      </trkpt>
      <trkpt lat="34.851980" lon="-116.874540">
        <ele>649.924</ele>
        <time>2018-12-28T21:22:33Z</time>
      </trkpt>
      <trkpt lat="34.852260" lon="-116.875830">
        <ele>649.825</ele>
        <time>2018-12-28T21:22:53Z</time>
      </trkpt>
      <trkpt lat="34.852940" lon="-116.879170">
        <ele>648.958</ele>
        <time>2018-12-28T21:23:13Z</time>
      </trkpt>
      <trkpt lat="34.853500" lon="-116.881840">
        <ele>647.568</ele>
        <time>2018-12-28T21:23:33Z</time>
      </trkpt>
      <trkpt lat="34.854060" lon="-116.884610">
        <ele>647.583</ele>
        <time>2018-12-28T21:23:53Z</time>
      </trkpt>
      <trkpt lat="34.854120" lon="-116.884870">
        <ele>647.025</ele>
        <time>2018-12-28T21:24:13Z</time>
      </trkpt>
      <trkpt lat="34.854130" lon="-116.884940">
        <ele>646.917</ele>
        <time>2018-12-28T21:24:33Z</time>
      </trkpt>
      <trkpt lat="34.854450" lon="-116.886490">
        <ele>646.108</ele>
        <time>2018-12-28T21:24:53Z</time>
      </trkpt>
      <trkpt lat="34.854600" lon="-116.887200">
        <ele>646.011</ele>
        <time>2018-12-28T21:25:13Z</time>
      </trkpt>
      <trkpt lat="34.855130" lon="-116.889830">
        <ele>646.069</ele>
        <time>2018-12-28T21:25:33Z</time>
      </trkpt>
      <trkpt lat="34.855200" lon="-116.890110">
        <ele>646.544</ele>
        <time>2018-12-28T21:25:53Z</time>
      </trkpt>
      <trkpt lat="34.855340" lon="-116.890800">
        <ele>647.175</ele>
        <time>2018-12-28T21:26:13Z</time>
      </trkpt>
      <trkpt lat="34.855470" lon="-116.891420">
        <ele>647.540</ele>
        <time>2018-12-28T21:26:33Z</time>
      </trkpt>
      <trkpt lat="34.855630" lon="-116.892210">
        <ele>647.621</ele>
        <time>2018-12-28T21:26:53Z</time>
      </trkpt>
      <trkpt lat="34.855780" lon="-116.892960">
        <ele>648.534</ele>
        <time>2018-12-28T21:27:13Z</time>
      </trkpt>
      <trkpt lat="34.855910" lon="-116.893580">
        <ele>649.314</ele>
        <time>2018-12-28T21:27:33Z</time>
      </trkpt>
      <trkpt lat="34.856100" lon="-116.894510">
        <ele>649.227</ele>
        <time>2018-12-28T21:27:53Z</time>
      </trkpt>
      <trkpt lat="34.856250" lon="-116.895240">
        <ele>649.468</ele>
        <time>2018-12-28T21:28:13Z</time>
      </trkpt>
      <trkpt lat="34.856260" lon="-116.895290">
        <ele>649.414</ele>
        <time>2018-12-28T21:28:33Z</time>
      </trkpt>
      <trkpt lat="34.856430" lon="-116.896070">
        <ele>649.608</ele>
        <time>2018-12-28T21:28:53Z</time>
      </trkpt>
      <trkpt lat="34.856510" lon="-116.896480">
        <ele>649.785</ele>
        <time>2018-12-28T21:29:13Z</time>
      </trkpt>
      <trkpt lat="34.856550" lon="-116.896680">
        <ele>649.623</ele>
        <time>2018-12-28T21:29:33Z</time>
      </trkpt>
      <trkpt lat="34.856720" lon="-116.897470">
        <ele>649.698</ele>
        <time>2018-12-28T21:29:53Z</time>
      </trkpt>
      <trkpt lat="34.856840" lon="-116.898090">
        <ele>649.799</ele>
        <time>2018-12-28T21:30:13Z</time>
      </trkpt>
      <trkpt lat="34.857000" lon="-116.898860">
        <ele>649.974</ele>
        <time>2018-12-28T21:30:33Z</time>
      </trkpt>
      <trkpt lat="34.857260" lon="-116.900110">
        <ele>649.335</ele>
        <time>2018-12-28T21:30:53Z</time>
      </trkpt>
      <trkpt lat="34.857390" lon="-116.900720">
        <ele>650.438</ele>
        <time>2018-12-28T21:31:13Z</time>
      </trkpt>
      <trkpt lat="34.857480" lon="-116.901190">
        <ele>651.368</ele>
        <time>2018-12-28T21:31:33Z</time>
      </trkpt>
      <trkpt lat="34.857580" lon="-116.901640">
        <ele>651.175</ele>
        <time>2018-12-28T21:31:53Z</time>
      </trkpt>
      <trkpt lat="34.857680" lon="-116.902110">
        <ele>650.828</ele>
        <time>2018-12-28T21:32:13Z</time>
      </trkpt>
      <trkpt lat="34.857800" lon="-116.902740">
        <ele>650.820</ele>
        <time>2018-12-28T21:32:33Z</time>
      </trkpt>
      <trkpt lat="34.857930" lon="-116.903360">
        <ele>651.108</ele>
        <time>2018-12-28T21:32:53Z</time>
      </trkpt>
      <trkpt lat="34.858070" lon="-116.904030">
        <ele>650.810</ele>
        <time>2018-12-28T21:33:13Z</time>
      </trkpt>
      <trkpt lat="34.858150" lon="-116.904430">
        <ele>651.298</ele>
        <time>2018-12-28T21:33:33Z</time>
      </trkpt>
      <trkpt lat="34.858280" lon="-116.905060">
        <ele>651.433</ele>
        <time>2018-12-28T21:33:53Z</time>
      </trkpt>
      <trkpt lat="34.858410" lon="-116.905680">
        <ele>651.324</ele>
        <time>2018-12-28T21:34:13Z</time>
      </trkpt>
      <trkpt lat="34.858540" lon="-116.906290">
        <ele>650.719</ele>
        <time>2018-12-28T21:34:33Z</time>
      </trkpt>
      <trkpt lat="34.858670" lon="-116.906920">
        <ele>649.250</ele>
        <time>2018-12-28T21:34:53Z</time>
      </trkpt>
      <trkpt lat="34.858800" lon="-116.907540">
        <ele>648.253</ele>
        <time>2018-12-28T21:35:13Z</time>
      </trkpt>
      <trkpt lat="34.858920" lon="-116.908140">
        <ele>647.543</ele>
        <time>2018-12-28T21:35:33Z</time>
      </trkpt>
      <trkpt lat="34.858990" lon="-116.908480">
        <ele>647.226</ele>
        <time>2018-12-28T21:35:53Z</time>
      </trkpt>
      <trkpt lat="34.859120" lon="-116.909090">
        <ele>646.447</ele>
        <time>2018-12-28T21:36:13Z</time>
      </trkpt>
      <trkpt lat="34.859220" lon="-116.909560">
        <ele>645.411</ele>
        <time>2018-12-28T21:36:33Z</time>
      </trkpt>
      <trkpt lat="34.859310" lon="-116.910040">
        <ele>644.908</ele>
        <time>2018-12-28T21:36:53Z</time>
      </trkpt>
      <trkpt lat="34.859410" lon="-116.910500">
        <ele>643.525</ele>
        <time>2018-12-28T21:37:13Z</time>
      </trkpt>
      <trkpt lat="34.859540" lon="-116.911120">
        <ele>641.583</ele>
        <time>2018-12-28T21:37:33Z</time>
      </trkpt>
      <trkpt lat="34.859670" lon="-116.911750">
        <ele>641.298</ele>
        <time>2018-12-28T21:37:53Z</time>
      </trkpt>
      <trkpt lat="34.859790" lon="-116.912360">
        <ele>640.979</ele>
        <time>2018-12-28T21:38:13Z</time>
      </trkpt>
      <trkpt lat="34.859920" lon="-116.912970">
        <ele>639.714</ele>
        <time>2018-12-28T21:38:33Z</time>
      </trkpt>
      <trkpt lat="34.859980" lon="-116.913290">
        <ele>639.625</ele>
        <time>2018-12-28T21:38:53Z</time>
      </trkpt>
      <trkpt lat="34.860110" lon="-116.913910">
        <ele>639.428</ele>
        <time>2018-12-28T21:39:13Z</time>
      </trkpt>
      <trkpt lat="34.860240" lon="-116.914530">
        <ele>638.078</ele>
        <time>2018-12-28T21:39:33Z</time>
      </trkpt>
      <trkpt lat="34.860400" lon="-116.915310">
        <ele>635.964</ele>
        <time>2018-12-28T21:39:53Z</time>
      </trkpt>
      <trkpt lat="34.860530" lon="-116.915920">
        <ele>634.606</ele>
        <time>2018-12-28T21:40:13Z</time>
      </trkpt>
      <trkpt lat="34.860660" lon="-116.916540">
        <ele>634.716</ele>
        <time>2018-12-28T21:40:33Z</time>
      </trkpt>
      <trkpt lat="34.860820" lon="-116.917330">
        <ele>632.908</ele>
        <time>2018-12-28T21:40:53Z</time>
      </trkpt>
      <trkpt lat="34.860910" lon="-116.917800">
        <ele>632.659</ele>
        <time>2018-12-28T21:41:13Z</time>
      </trkpt>
      <trkpt lat="34.861040" lon="-116.918420">
        <ele>632.137</ele>
        <time>2018-12-28T21:41:33Z</time>
      </trkpt>
      <trkpt lat="34.861240" lon="-116.919360">
        <ele>630.642</ele>
        <time>2018-12-28T21:41:53Z</time>
      </trkpt>
      <trkpt lat="34.861430" lon="-116.920300">
        <ele>629.883</ele>
        <time>2018-12-28T21:42:13Z</time>
      </trkpt>
      <trkpt lat="34.861650" lon="-116.921370">
        <ele>629.238</ele>
        <time>2018-12-28T21:42:33Z</time>
      </trkpt>
      <trkpt lat="34.861880" lon="-116.922460">
        <ele>628.989</ele>
        <time>2018-12-28T21:42:53Z</time>
      </trkpt>
      <trkpt lat="34.862010" lon="-116.923080">
        <ele>628.852</ele>
        <time>2018-12-28T21:43:13Z</time>
      </trkpt>
      <trkpt lat="34.862130" lon="-116.923680">
        <ele>628.812</ele>
        <time>2018-12-28T21:43:33Z</time>
      </trkpt>
      <trkpt lat="34.862420" lon="-116.925090">
        <ele>628.981</ele>
        <time>2018-12-28T21:43:53Z</time>
      </trkpt>
      <trkpt lat="34.862830" lon="-116.927050">
        <ele>628.861</ele>
        <time>2018-12-28T21:44:13Z</time>
      </trkpt>
      <trkpt lat="34.862900" lon="-116.927400">
        <ele>628.917</ele>
        <time>2018-12-28T21:44:33Z</time>
      </trkpt>
      <trkpt lat="34.863050" lon="-116.928130">
        <ele>628.808</ele>
        <time>2018-12-28T21:44:53Z</time>
      </trkpt>
      <trkpt lat="34.863120" lon="-116.928500">
        <ele>628.981</ele>
        <time>2018-12-28T21:45:13Z</time>
      </trkpt>
      <trkpt lat="34.863250" lon="-116.929110">
        <ele>629.099</ele>
        <time>2018-12-28T21:45:33Z</time>
      </trkpt>
      <trkpt lat="34.863350" lon="-116.929570">
        <ele>629.094</ele>
        <time>2018-12-28T21:45:53Z</time>
      </trkpt>
      <trkpt lat="34.863450" lon="-116.930060">
        <ele>630.475</ele>
        <time>2018-12-28T21:46:13Z</time>
      </trkpt>
      <trkpt lat="34.863600" lon="-116.930820">
        <ele>633.730</ele>
        <time>2018-12-28T21:46:33Z</time>
      </trkpt>
      <trkpt lat="34.863790" lon="-116.931700">
        <ele>634.451</ele>
        <time>2018-12-28T21:46:53Z</time>
      </trkpt>
      <trkpt lat="34.863880" lon="-116.932130">
        <ele>633.854</ele>
        <time>2018-12-28T21:47:13Z</time>
      </trkpt>
      <trkpt lat="34.863950" lon="-116.932500">
        <ele>637.914</ele>
        <time>2018-12-28T21:47:33Z</time>
      </trkpt>
      <trkpt lat="34.864080" lon="-116.933130">
        <ele>640.786</ele>
        <time>2018-12-28T21:47:53Z</time>
      </trkpt>
      <trkpt lat="34.864210" lon="-116.933750">
        <ele>641.360</ele>
        <time>2018-12-28T21:48:13Z</time>
      </trkpt>
      <trkpt lat="34.864310" lon="-116.934220">
        <ele>642.926</ele>
        <time>2018-12-28T21:48:33Z</time>
      </trkpt>
      <trkpt lat="34.864470" lon="-116.934990">
        <ele>644.408</ele>
        <time>2018-12-28T21:48:53Z</time>
      </trkpt>
      <trkpt lat="34.864600" lon="-116.935650">
        <ele>646.741</ele>
        <time>2018-12-28T21:49:13Z</time>
      </trkpt>
      <trkpt lat="34.864700" lon="-116.936100">
        <ele>646.949</ele>
        <time>2018-12-28T21:49:33Z</time>
      </trkpt>
      <trkpt lat="34.864900" lon="-116.937090">
        <ele>647.214</ele>
        <time>2018-12-28T21:49:53Z</time>
      </trkpt>
      <trkpt lat="34.864950" lon="-116.937320">
        <ele>647.165</ele>
        <time>2018-12-28T21:50:13Z</time>
      </trkpt>
      <trkpt lat="34.865190" lon="-116.938500">
        <ele>647.490</ele>
        <time>2018-12-28T21:50:33Z</time>
      </trkpt>
      <trkpt lat="34.865300" lon="-116.939010">
        <ele>647.581</ele>
        <time>2018-12-28T21:50:53Z</time>
      </trkpt>
      <trkpt lat="34.865430" lon="-116.939640">
        <ele>647.944</ele>
        <time>2018-12-28T21:51:13Z</time>
      </trkpt>
      <trkpt lat="34.865520" lon="-116.940100">
        <ele>648.654</ele>
        <time>2018-12-28T21:51:33Z</time>
      </trkpt>
      <trkpt lat="34.865610" lon="-116.940570">
        <ele>648.947</ele>
        <time>2018-12-28T21:51:53Z</time>
      </trkpt>
      <trkpt lat="34.865740" lon="-116.941190">
        <ele>648.929</ele>
        <time>2018-12-28T21:52:13Z</time>
      </trkpt>
      <trkpt lat="34.865870" lon="-116.941820">
        <ele>649.321</ele>
        <time>2018-12-28T21:52:33Z</time>
      </trkpt>
      <trkpt lat="34.866000" lon="-116.942430">
        <ele>650.408</ele>
        <time>2018-12-28T21:52:53Z</time>
      </trkpt>
      <trkpt lat="34.866100" lon="-116.942910">
        <ele>650.237</ele>
        <time>2018-12-28T21:53:13Z</time>
      </trkpt>
      <trkpt lat="34.866220" lon="-116.943510">
        <ele>650.295</ele>
        <time>2018-12-28T21:53:33Z</time>
      </trkpt>
      <trkpt lat="34.866320" lon="-116.943980">
        <ele>651.540</ele>
        <time>2018-12-28T21:53:53Z</time>
      </trkpt>
      <trkpt lat="34.866450" lon="-116.944610">
        <ele>652.881</ele>
        <time>2018-12-28T21:54:13Z</time>
      </trkpt>
      <trkpt lat="34.866540" lon="-116.945040">
        <ele>653.136</ele>
        <time>2018-12-28T21:54:33Z</time>
      </trkpt>
      <trkpt lat="34.866710" lon="-116.945830">
        <ele>653.037</ele>
        <time>2018-12-28T21:54:53Z</time>
      </trkpt>
      <trkpt lat="34.866790" lon="-116.946240">
        <ele>653.580</ele>
        <time>2018-12-28T21:55:13Z</time>
      </trkpt>
      <trkpt lat="34.866900" lon="-116.946770">
        <ele>652.960</ele>
        <time>2018-12-28T21:55:33Z</time>
      </trkpt>
      <trkpt lat="34.867090" lon="-116.947710">
        <ele>654.493</ele>
        <time>2018-12-28T21:55:53Z</time>
      </trkpt>
      <trkpt lat="34.867190" lon="-116.948170">
        <ele>654.465</ele>
        <time>2018-12-28T21:56:13Z</time>
      </trkpt>
      <trkpt lat="34.867540" lon="-116.949890">
        <ele>659.021</ele>
        <time>2018-12-28T21:56:33Z</time>
      </trkpt>
      <trkpt lat="34.867730" lon="-116.950810">
        <ele>659.108</ele>
        <time>2018-12-28T21:56:53Z</time>
      </trkpt>
      <trkpt lat="34.867860" lon="-116.951420">
        <ele>659.252</ele>
        <time>2018-12-28T21:57:13Z</time>
      </trkpt>
      <trkpt lat="34.867980" lon="-116.951910">
        <ele>659.350</ele>
        <time>2018-12-28T21:57:33Z</time>
      </trkpt>
      <trkpt lat="34.868090" lon="-116.952330">
        <ele>659.495</ele>
        <time>2018-12-28T21:57:53Z</time>
      </trkpt>
      <trkpt lat="34.868220" lon="-116.952790">
        <ele>659.956</ele>
        <time>2018-12-28T21:58:13Z</time>
      </trkpt>
      <trkpt lat="34.868300" lon="-116.953060">
        <ele>660.961</ele>
        <time>2018-12-28T21:58:33Z</time>
      </trkpt>
      <trkpt lat="34.868390" lon="-116.953370">
        <ele>662.952</ele>
        <time>2018-12-28T21:58:53Z</time>
      </trkpt>
      <trkpt lat="34.868430" lon="-116.953480">
        <ele>664.195</ele>
        <time>2018-12-28T21:59:13Z</time>
      </trkpt>
      <trkpt lat="34.868560" lon="-116.953820">
        <ele>659.395</ele>
        <time>2018-12-28T21:59:33Z</time>
      </trkpt>
      <trkpt lat="34.868560" lon="-116.953830">
        <ele>659.493</ele>
        <time>2018-12-28T21:59:53Z</time>
      </trkpt>
      <trkpt lat="34.868690" lon="-116.954210">
        <ele>663.965</ele>
        <time>2018-12-28T22:00:13Z</time>
      </trkpt>
      <trkpt lat="34.868780" lon="-116.954410">
        <ele>663.721</ele>
        <time>2018-12-28T22:00:33Z</time>
      </trkpt>
      <trkpt lat="34.869020" lon="-116.954970">
        <ele>659.608</ele>
        <time>2018-12-28T22:00:53Z</time>
      </trkpt>
      <trkpt lat="34.869220" lon="-116.955410">
        <ele>659.322</ele>
        <time>2018-12-28T22:01:13Z</time>
      </trkpt>
      <trkpt lat="34.869410" lon="-116.955810">
        <ele>658.360</ele>
        <time>2018-12-28T22:01:33Z</time>
      </trkpt>
      <trkpt lat="34.869640" lon="-116.956210">
        <ele>654.445</ele>
        <time>2018-12-28T22:01:53Z</time>
      </trkpt>
      <trkpt lat="34.869830" lon="-116.956560">
        <ele>653.726</ele>
        <time>2018-12-28T22:02:13Z</time>
      </trkpt>
      <trkpt lat="34.869930" lon="-116.956750">
        <ele>653.781</ele>
        <time>2018-12-28T22:02:33Z</time>
      </trkpt>
      <trkpt lat="34.870140" lon="-116.957110">
        <ele>653.442</ele>
        <time>2018-12-28T22:02:53Z</time>
      </trkpt>
      <trkpt lat="34.870300" lon="-116.957350">
        <ele>653.265</ele>
        <time>2018-12-28T22:03:13Z</time>
      </trkpt>
      <trkpt lat="34.870480" lon="-116.957630">
        <ele>653.235</ele>
        <time>2018-12-28T22:03:33Z</time>
      </trkpt>
      <trkpt lat="34.870570" lon="-116.957760">
        <ele>652.865</ele>
        <time>2018-12-28T22:03:53Z</time>
      </trkpt>
      <trkpt lat="34.870830" lon="-116.958120">
        <ele>652.568</ele>
        <time>2018-12-28T22:04:13Z</time>
      </trkpt>
      <trkpt lat="34.871090" lon="-116.958480">
        <ele>652.214</ele>
        <time>2018-12-28T22:04:33Z</time>
      </trkpt>
      <trkpt lat="34.871170" lon="-116.958580">
        <ele>652.008</ele>
        <time>2018-12-28T22:04:53Z</time>
      </trkpt>
      <trkpt lat="34.871360" lon="-116.958820">
        <ele>651.429</ele>
        <time>2018-12-28T22:05:13Z</time>
      </trkpt>
      <trkpt lat="34.871710" lon="-116.959300">
        <ele>650.727</ele>
        <time>2018-12-28T22:05:33Z</time>
      </trkpt>
      <trkpt lat="34.872070" lon="-116.959760">
        <ele>650.072</ele>
        <time>2018-12-28T22:05:53Z</time>
      </trkpt>
      <trkpt lat="34.872340" lon="-116.960120">
        <ele>649.533</ele>
        <time>2018-12-28T22:06:13Z</time>
      </trkpt>
      <trkpt lat="34.872400" lon="-116.960200">
        <ele>649.428</ele>
        <time>2018-12-28T22:06:33Z</time>
      </trkpt>
      <trkpt lat="34.872620" lon="-116.960490">
        <ele>649.229</ele>
        <time>2018-12-28T22:06:53Z</time>
      </trkpt>
      <trkpt lat="34.872880" lon="-116.960830">
        <ele>649.012</ele>
        <time>2018-12-28T22:07:13Z</time>
      </trkpt>
      <trkpt lat="34.873060" lon="-116.961060">
        <ele>649.142</ele>
        <time>2018-12-28T22:07:33Z</time>
      </trkpt>
      <trkpt lat="34.873510" lon="-116.961640">
        <ele>648.852</ele>
        <time>2018-12-28T22:07:53Z</time>
      </trkpt>
      <trkpt lat="34.873770" lon="-116.961990">
        <ele>648.453</ele>
        <time>2018-12-28T22:08:13Z</time>
      </trkpt>
      <trkpt lat="34.874120" lon="-116.962460">
        <ele>648.208</ele>
        <time>2018-12-28T22:08:33Z</time>
      </trkpt>
      <trkpt lat="34.874560" lon="-116.963020">
        <ele>646.208</ele>
        <time>2018-12-28T22:08:53Z</time>
      </trkpt>
      <trkpt lat="34.874840" lon="-116.963400">
        <ele>643.618</ele>
        <time>2018-12-28T22:09:13Z</time>
      </trkpt>
      <trkpt lat="34.875350" lon="-116.964070">
        <ele>640.836</ele>
        <time>2018-12-28T22:09:33Z</time>
      </trkpt>
      <trkpt lat="34.875620" lon="-116.964430">
        <ele>640.081</ele>
        <time>2018-12-28T22:09:53Z</time>
      </trkpt>
      <trkpt lat="34.875640" lon="-116.964440">
        <ele>639.922</ele>
        <time>2018-12-28T22:10:13Z</time>
      </trkpt>
      <trkpt lat="34.875840" lon="-116.964710">
        <ele>640.287</ele>
        <time>2018-12-28T22:10:33Z</time>
      </trkpt>
      <trkpt lat="34.876070" lon="-116.965000">
        <ele>640.638</ele>
        <time>2018-12-28T22:10:53Z</time>
      </trkpt>
      <trkpt lat="34.876170" lon="-116.965140">
        <ele>640.251</ele>
        <time>2018-12-28T22:11:13Z</time>
      </trkpt>
      <trkpt lat="34.876440" lon="-116.965500">
        <ele>638.821</ele>
        <time>2018-12-28T22:11:33Z</time>
      </trkpt>
      <trkpt lat="34.876880" lon="-116.966080">
        <ele>638.794</ele>
        <time>2018-12-28T22:11:53Z</time>
      </trkpt>
      <trkpt lat="34.877290" lon="-116.966620">
        <ele>637.157</ele>
        <time>2018-12-28T22:12:13Z</time>
      </trkpt>
      <trkpt lat="34.877680" lon="-116.967140">
        <ele>634.822</ele>
        <time>2018-12-28T22:12:33Z</time>
      </trkpt>
      <trkpt lat="34.878100" lon="-116.967690">
        <ele>629.608</ele>
        <time>2018-12-28T22:12:53Z</time>
      </trkpt>
      <trkpt lat="34.878360" lon="-116.968030">
        <ele>629.852</ele>
        <time>2018-12-28T22:13:13Z</time>
      </trkpt>
      <trkpt lat="34.878370" lon="-116.968040">
        <ele>629.930</ele>
        <time>2018-12-28T22:13:33Z</time>
      </trkpt>
      <trkpt lat="34.878640" lon="-116.968400">
        <ele>632.325</ele>
        <time>2018-12-28T22:13:53Z</time>
      </trkpt>
      <trkpt lat="34.878830" lon="-116.968640">
        <ele>632.366</ele>
        <time>2018-12-28T22:14:13Z</time>
      </trkpt>
      <trkpt lat="34.879640" lon="-116.969730">
        <ele>630.711</ele>
        <time>2018-12-28T22:14:33Z</time>
      </trkpt>
      <trkpt lat="34.879730" lon="-116.969850">
        <ele>630.572</ele>
        <time>2018-12-28T22:14:53Z</time>
      </trkpt>
      <trkpt lat="34.879880" lon="-116.970080">
        <ele>630.315</ele>
        <time>2018-12-28T22:15:13Z</time>
      </trkpt>
      <trkpt lat="34.880140" lon="-116.970480">
        <ele>630.115</ele>
        <time>2018-12-28T22:15:33Z</time>
      </trkpt>
      <trkpt lat="34.880220" lon="-116.970610">
        <ele>630.135</ele>
        <time>2018-12-28T22:15:53Z</time>
      </trkpt>
      <trkpt lat="34.880350" lon="-116.970830">
        <ele>630.086</ele>
        <time>2018-12-28T22:16:13Z</time>
      </trkpt>
      <trkpt lat="34.880500" lon="-116.971100">
        <ele>629.814</ele>
        <time>2018-12-28T22:16:33Z</time>
      </trkpt>
      <trkpt lat="34.880810" lon="-116.971680">
        <ele>629.508</ele>
        <time>2018-12-28T22:16:53Z</time>
      </trkpt>
      <trkpt lat="34.880900" lon="-116.971890">
        <ele>629.546</ele>
        <time>2018-12-28T22:17:13Z</time>
      </trkpt>
      <trkpt lat="34.881060" lon="-116.972220">
        <ele>629.374</ele>
        <time>2018-12-28T22:17:33Z</time>
      </trkpt>
      <trkpt lat="34.881240" lon="-116.972640">
        <ele>629.239</ele>
        <time>2018-12-28T22:17:53Z</time>
      </trkpt>
      <trkpt lat="34.881400" lon="-116.973080">
        <ele>629.390</ele>
        <time>2018-12-28T22:18:13Z</time>
      </trkpt>
      <trkpt lat="34.881550" lon="-116.973500">
        <ele>629.255</ele>
        <time>2018-12-28T22:18:33Z</time>
      </trkpt>
      <trkpt lat="34.881690" lon="-116.973960">
        <ele>628.966</ele>
        <time>2018-12-28T22:18:53Z</time>
      </trkpt>
      <trkpt lat="34.881820" lon="-116.974420">
        <ele>629.189</ele>
        <time>2018-12-28T22:19:13Z</time>
      </trkpt>
      <trkpt lat="34.881970" lon="-116.974970">
        <ele>629.839</ele>
        <time>2018-12-28T22:19:33Z</time>
      </trkpt>
      <trkpt lat="34.882180" lon="-116.975790">
        <ele>630.871</ele>
        <time>2018-12-28T22:19:53Z</time>
      </trkpt>
      <trkpt lat="34.882330" lon="-116.976370">
        <ele>631.241</ele>
        <time>2018-12-28T22:20:13Z</time>
      </trkpt>
      <trkpt lat="34.882450" lon="-116.976840">
        <ele>631.615</ele>
        <time>2018-12-28T22:20:33Z</time>
      </trkpt>
      <trkpt lat="34.882650" lon="-116.977590">
        <ele>632.408</ele>
        <time>2018-12-28T22:20:53Z</time>
      </trkpt>
      <trkpt lat="34.882810" lon="-116.978210">
        <ele>632.780</ele>
        <time>2018-12-28T22:21:13Z</time>
      </trkpt>
      <trkpt lat="34.883000" lon="-116.978950">
        <ele>632.718</ele>
        <time>2018-12-28T22:21:33Z</time>
      </trkpt>
      <trkpt lat="34.883200" lon="-116.979730">
        <ele>632.943</ele>
        <time>2018-12-28T22:21:53Z</time>
      </trkpt>
      <trkpt lat="34.883400" lon="-116.980510">
        <ele>633.384</ele>
        <time>2018-12-28T22:22:13Z</time>
      </trkpt>
      <trkpt lat="34.883560" lon="-116.981110">
        <ele>633.789</ele>
        <time>2018-12-28T22:22:33Z</time>
      </trkpt>
      <trkpt lat="34.883750" lon="-116.981860">
        <ele>634.670</ele>
        <time>2018-12-28T22:22:53Z</time>
      </trkpt>
      <trkpt lat="34.884120" lon="-116.983280">
        <ele>634.763</ele>
        <time>2018-12-28T22:23:13Z</time>
      </trkpt>
      <trkpt lat="34.884580" lon="-116.985070">
        <ele>634.653</ele>
        <time>2018-12-28T22:23:33Z</time>
      </trkpt>
      <trkpt lat="34.884990" lon="-116.986670">
        <ele>633.584</ele>
        <time>2018-12-28T22:23:53Z</time>
      </trkpt>
      <trkpt lat="34.885520" lon="-116.988720">
        <ele>634.707</ele>
        <time>2018-12-28T22:24:13Z</time>
      </trkpt>
      <trkpt lat="34.885750" lon="-116.989630">
        <ele>634.717</ele>
        <time>2018-12-28T22:24:33Z</time>
      </trkpt>
      <trkpt lat="34.885930" lon="-116.990370">
        <ele>634.708</ele>
        <time>2018-12-28T22:24:53Z</time>
      </trkpt>
      <trkpt lat="34.886110" lon="-116.991160">
        <ele>634.761</ele>
        <time>2018-12-28T22:25:13Z</time>
      </trkpt>
      <trkpt lat="34.886300" lon="-116.992090">
        <ele>635.899</ele>
        <time>2018-12-28T22:25:33Z</time>
      </trkpt>
      <trkpt lat="34.886440" lon="-116.992850">
        <ele>638.024</ele>
        <time>2018-12-28T22:25:53Z</time>
      </trkpt>
      <trkpt lat="34.886530" lon="-116.993460">
        <ele>639.245</ele>
        <time>2018-12-28T22:26:13Z</time>
      </trkpt>
      <trkpt lat="34.886580" lon="-116.993820">
        <ele>639.750</ele>
        <time>2018-12-28T22:26:33Z</time>
      </trkpt>
      <trkpt lat="34.886580" lon="-116.993830">
        <ele>639.721</ele>
        <time>2018-12-28T22:26:53Z</time>
      </trkpt>
      <trkpt lat="34.886640" lon="-116.994250">
        <ele>640.384</ele>
        <time>2018-12-28T22:27:13Z</time>
      </trkpt>
      <trkpt lat="34.886690" lon="-116.994750">
        <ele>641.114</ele>
        <time>2018-12-28T22:27:33Z</time>
      </trkpt>
      <trkpt lat="34.886740" lon="-116.995370">
        <ele>642.743</ele>
        <time>2018-12-28T22:27:53Z</time>
      </trkpt>
      <trkpt lat="34.886800" lon="-116.996340">
        <ele>645.064</ele>
        <time>2018-12-28T22:28:13Z</time>
      </trkpt>
      <trkpt lat="34.886840" lon="-116.997280">
        <ele>647.210</ele>
        <time>2018-12-28T22:28:33Z</time>
      </trkpt>
      <trkpt lat="34.886840" lon="-116.997620">
        <ele>647.908</ele>
        <time>2018-12-28T22:28:53Z</time>
      </trkpt>
      <trkpt lat="34.886870" lon="-117.000290">
        <ele>652.677</ele>
        <time>2018-12-28T22:29:13Z</time>
      </trkpt>
      <trkpt lat="34.886880" lon="-117.002000">
        <ele>658.915</ele>
        <time>2018-12-28T22:29:33Z</time>
      </trkpt>
      <trkpt lat="34.886890" lon="-117.002640">
        <ele>659.390</ele>
        <time>2018-12-28T22:29:53Z</time>
      </trkpt>
      <trkpt lat="34.886920" lon="-117.003190">
        <ele>659.631</ele>
        <time>2018-12-28T22:30:13Z</time>
      </trkpt>
      <trkpt lat="34.886950" lon="-117.003590">
        <ele>662.036</ele>
        <time>2018-12-28T22:30:33Z</time>
      </trkpt>
      <trkpt lat="34.886990" lon="-117.004040">
        <ele>664.947</ele>
        <time>2018-12-28T22:30:53Z</time>
      </trkpt>
      <trkpt lat="34.887080" lon="-117.004810">
        <ele>665.160</ele>
        <time>2018-12-28T22:31:13Z</time>
      </trkpt>
      <trkpt lat="34.887140" lon="-117.005310">
        <ele>665.690</ele>
        <time>2018-12-28T22:31:33Z</time>
      </trkpt>
      <trkpt lat="34.887170" lon="-117.005790">
        <ele>669.557</ele>
        <time>2018-12-28T22:31:53Z</time>
      </trkpt>
      <trkpt lat="34.887190" lon="-117.006110">
        <ele>669.000</ele>
        <time>2018-12-28T22:32:13Z</time>
      </trkpt>
      <trkpt lat="34.887190" lon="-117.006630">
        <ele>668.420</ele>
        <time>2018-12-28T22:32:33Z</time>
      </trkpt>
      <trkpt lat="34.887180" lon="-117.006810">
        <ele>668.308</ele>
        <time>2018-12-28T22:32:53Z</time>
      </trkpt>
      <trkpt lat="34.887180" lon="-117.007010">
        <ele>667.318</ele>
        <time>2018-12-28T22:33:13Z</time>
      </trkpt>
      <trkpt lat="34.887160" lon="-117.007340">
        <ele>669.636</ele>
        <time>2018-12-28T22:33:33Z</time>
      </trkpt>
      <trkpt lat="34.887140" lon="-117.007480">
        <ele>670.391</ele>
        <time>2018-12-28T22:33:53Z</time>
      </trkpt>
      <trkpt lat="34.887110" lon="-117.007820">
        <ele>671.232</ele>
        <time>2018-12-28T22:34:13Z</time>
      </trkpt>
      <trkpt lat="34.887030" lon="-117.008460">
        <ele>673.427</ele>
        <time>2018-12-28T22:34:33Z</time>
      </trkpt>
      <trkpt lat="34.886980" lon="-117.008690">
        <ele>675.478</ele>
        <time>2018-12-28T22:34:53Z</time>
      </trkpt>
      <trkpt lat="34.886940" lon="-117.008920">
        <ele>676.921</ele>
        <time>2018-12-28T22:35:13Z</time>
      </trkpt>
      <trkpt lat="34.886870" lon="-117.009210">
        <ele>677.821</ele>
        <time>2018-12-28T22:35:33Z</time>
      </trkpt>
      <trkpt lat="34.886760" lon="-117.009670">
        <ele>678.596</ele>
        <time>2018-12-28T22:35:53Z</time>
      </trkpt>
      <trkpt lat="34.886630" lon="-117.010120">
        <ele>681.331</ele>
        <time>2018-12-28T22:36:13Z</time>
      </trkpt>
      <trkpt lat="34.886510" lon="-117.010540">
        <ele>683.624</ele>
        <time>2018-12-28T22:36:33Z</time>
      </trkpt>
      <trkpt lat="34.886420" lon="-117.010850">
        <ele>683.508</ele>
        <time>2018-12-28T22:36:53Z</time>
      </trkpt>
      <trkpt lat="34.886390" lon="-117.011020">
        <ele>683.782</ele>
        <time>2018-12-28T22:37:13Z</time>
      </trkpt>
      <trkpt lat="34.886350" lon="-117.011170">
        <ele>684.050</ele>
        <time>2018-12-28T22:37:33Z</time>
      </trkpt>
      <trkpt lat="34.886320" lon="-117.011320">
        <ele>684.385</ele>
        <time>2018-12-28T22:37:53Z</time>
      </trkpt>
      <trkpt lat="34.886270" lon="-117.011640">
        <ele>685.636</ele>
        <time>2018-12-28T22:38:13Z</time>
      </trkpt>
      <trkpt lat="34.886240" lon="-117.011940">
        <ele>687.691</ele>
        <time>2018-12-28T22:38:33Z</time>
      </trkpt>
      <trkpt lat="34.886210" lon="-117.012150">
        <ele>688.812</ele>
        <time>2018-12-28T22:38:53Z</time>
      </trkpt>
      <trkpt lat="34.886210" lon="-117.012230">
        <ele>689.175</ele>
        <time>2018-12-28T22:39:13Z</time>
      </trkpt>
      <trkpt lat="34.886190" lon="-117.012580">
        <ele>689.695</ele>
        <time>2018-12-28T22:39:33Z</time>
      </trkpt>
      <trkpt lat="34.886160" lon="-117.012700">
        <ele>689.786</ele>
        <time>2018-12-28T22:39:53Z</time>
      </trkpt>
      <trkpt lat="34.886090" lon="-117.012880">
        <ele>689.860</ele>
        <time>2018-12-28T22:40:13Z</time>
      </trkpt>
      <trkpt lat="34.886088" lon="-117.012875">
        <ele>689.826</ele>
        <time>2018-12-28T22:40:33Z</time>
      </trkpt>
      <trkpt lat="34.886080" lon="-117.013360">
        <ele>691.408</ele>
        <time>2018-12-28T22:40:53Z</time>
      </trkpt>
      <trkpt lat="34.886070" lon="-117.013760">
        <ele>693.981</ele>
        <time>2018-12-28T22:41:13Z</time>
      </trkpt>
      <trkpt lat="34.886060" lon="-117.014130">
        <ele>695.549</ele>
        <time>2018-12-28T22:41:33Z</time>
      </trkpt>
      <trkpt lat="34.886060" lon="-117.015190">
        <ele>698.934</ele>
        <time>2018-12-28T22:41:53Z</time>
      </trkpt>
      <trkpt lat="34.886080" lon="-117.017910">
        <ele>708.335</ele>
        <time>2018-12-28T22:42:13Z</time>
      </trkpt>
      <trkpt lat="34.886100" lon="-117.019260">
        <ele>713.740</ele>
        <time>2018-12-28T22:42:33Z</time>
      </trkpt>
      <trkpt lat="34.886110" lon="-117.021920">
        <ele>725.321</ele>
        <time>2018-12-28T22:42:53Z</time>
      </trkpt>
      <trkpt lat="34.886120" lon="-117.022890">
        <ele>726.064</ele>
        <time>2018-12-28T22:43:13Z</time>
      </trkpt>
      <trkpt lat="34.886120" lon="-117.022930">
        <ele>726.194</ele>
        <time>2018-12-28T22:43:33Z</time>
      </trkpt>
      <trkpt lat="34.886130" lon="-117.023760">
        <ele>729.484</ele>
        <time>2018-12-28T22:43:53Z</time>
      </trkpt>
      <trkpt lat="34.886140" lon="-117.025480">
        <ele>734.607</ele>
        <time>2018-12-28T22:44:13Z</time>
      </trkpt>
      <trkpt lat="34.886150" lon="-117.026490">
        <ele>736.217</ele>
        <time>2018-12-28T22:44:33Z</time>
      </trkpt>
      <trkpt lat="34.886160" lon="-117.027390">
        <ele>738.408</ele>
        <time>2018-12-28T22:44:53Z</time>
      </trkpt>
      <trkpt lat="34.886170" lon="-117.028880">
        <ele>742.521</ele>
        <time>2018-12-28T22:45:13Z</time>
      </trkpt>
      <trkpt lat="34.886190" lon="-117.031270">
        <ele>740.549</ele>
        <time>2018-12-28T22:45:33Z</time>
      </trkpt>
      <trkpt lat="34.886220" lon="-117.035400">
        <ele>727.284</ele>
        <time>2018-12-28T22:45:53Z</time>
      </trkpt>
      <trkpt lat="34.886260" lon="-117.041000">
        <ele>720.385</ele>
        <time>2018-12-28T22:46:13Z</time>
      </trkpt>
      <trkpt lat="34.886280" lon="-117.042850">
        <ele>719.510</ele>
        <time>2018-12-28T22:46:33Z</time>
      </trkpt>
      <trkpt lat="34.886290" lon="-117.044160">
        <ele>713.621</ele>
        <time>2018-12-28T22:46:53Z</time>
      </trkpt>
      <trkpt lat="34.886280" lon="-117.044760">
        <ele>713.484</ele>
        <time>2018-12-28T22:47:13Z</time>
      </trkpt>
      <trkpt lat="34.886280" lon="-117.045220">
        <ele>712.094</ele>
        <time>2018-12-28T22:47:33Z</time>
      </trkpt>
      <trkpt lat="34.886250" lon="-117.045990">
        <ele>708.422</ele>
        <time>2018-12-28T22:47:53Z</time>
      </trkpt>
      <trkpt lat="34.886190" lon="-117.047020">
        <ele>705.862</ele>
        <time>2018-12-28T22:48:13Z</time>
      </trkpt>
      <trkpt lat="34.886140" lon="-117.047530">
        <ele>704.208</ele>
        <time>2018-12-28T22:48:33Z</time>
      </trkpt>
      <trkpt lat="34.886140" lon="-117.047550">
        <ele>703.908</ele>
        <time>2018-12-28T22:48:53Z</time>
      </trkpt>
      <trkpt lat="34.886130" lon="-117.047650">
        <ele>702.375</ele>
        <time>2018-12-28T22:49:13Z</time>
      </trkpt>
      <trkpt lat="34.886090" lon="-117.048050">
        <ele>700.653</ele>
        <time>2018-12-28T22:49:33Z</time>
      </trkpt>
      <trkpt lat="34.886020" lon="-117.048640">
        <ele>701.028</ele>
        <time>2018-12-28T22:49:53Z</time>
      </trkpt>
      <trkpt lat="34.885950" lon="-117.049220">
        <ele>700.889</ele>
        <time>2018-12-28T22:50:13Z</time>
      </trkpt>
      <trkpt lat="34.885870" lon="-117.049730">
        <ele>699.284</ele>
        <time>2018-12-28T22:50:33Z</time>
      </trkpt>
      <trkpt lat="34.885740" lon="-117.050580">
        <ele>700.285</ele>
        <time>2018-12-28T22:50:53Z</time>
      </trkpt>
      <trkpt lat="34.885690" lon="-117.050890">
        <ele>700.778</ele>
        <time>2018-12-28T22:51:13Z</time>
      </trkpt>
      <trkpt lat="34.885630" lon="-117.051250">
        <ele>700.488</ele>
        <time>2018-12-28T22:51:33Z</time>
      </trkpt>
      <trkpt lat="34.884980" lon="-117.055280">
        <ele>697.491</ele>
        <time>2018-12-28T22:51:53Z</time>
      </trkpt>
      <trkpt lat="34.884840" lon="-117.056140">
        <ele>698.381</ele>
        <time>2018-12-28T22:52:13Z</time>
      </trkpt>
      <trkpt lat="34.884810" lon="-117.056320">
        <ele>698.419</ele>
        <time>2018-12-28T22:52:33Z</time>
      </trkpt>
      <trkpt lat="34.884810" lon="-117.056330">
        <ele>698.408</ele>
        <time>2018-12-28T22:52:53Z</time>
      </trkpt>
      <trkpt lat="34.884700" lon="-117.056990">
        <ele>699.342</ele>
        <time>2018-12-28T22:53:13Z</time>
      </trkpt>
      <trkpt lat="34.884520" lon="-117.058140">
        <ele>700.240</ele>
        <time>2018-12-28T22:53:33Z</time>
      </trkpt>
      <trkpt lat="34.884440" lon="-117.058600">
        <ele>701.435</ele>
        <time>2018-12-28T22:53:53Z</time>
      </trkpt>
      <trkpt lat="34.884360" lon="-117.059050">
        <ele>701.976</ele>
        <time>2018-12-28T22:54:13Z</time>
      </trkpt>
      <trkpt lat="34.884210" lon="-117.059660">
        <ele>702.181</ele>
        <time>2018-12-28T22:54:33Z</time>
      </trkpt>
      <trkpt lat="34.883980" lon="-117.060430">
        <ele>702.652</ele>
        <time>2018-12-28T22:54:53Z</time>
      </trkpt>
      <trkpt lat="34.883750" lon="-117.061040">
        <ele>703.255</ele>
        <time>2018-12-28T22:55:13Z</time>
      </trkpt>
      <trkpt lat="34.883550" lon="-117.061480">
        <ele>703.845</ele>
        <time>2018-12-28T22:55:33Z</time>
      </trkpt>
      <trkpt lat="34.883390" lon="-117.061820">
        <ele>704.586</ele>
        <time>2018-12-28T22:55:53Z</time>
      </trkpt>
      <trkpt lat="34.883260" lon="-117.062080">
        <ele>706.160</ele>
        <time>2018-12-28T22:56:13Z</time>
      </trkpt>
      <trkpt lat="34.883100" lon="-117.062370">
        <ele>707.626</ele>
        <time>2018-12-28T22:56:33Z</time>
      </trkpt>
      <trkpt lat="34.882820" lon="-117.062820">
        <ele>707.808</ele>
        <time>2018-12-28T22:56:53Z</time>
      </trkpt>
      <trkpt lat="34.882660" lon="-117.063070">
        <ele>707.951</ele>
        <time>2018-12-28T22:57:13Z</time>
      </trkpt>
      <trkpt lat="34.882460" lon="-117.063350">
        <ele>707.819</ele>
        <time>2018-12-28T22:57:33Z</time>
      </trkpt>
      <trkpt lat="34.882170" lon="-117.063710">
        <ele>708.144</ele>
        <time>2018-12-28T22:57:53Z</time>
      </trkpt>
      <trkpt lat="34.881860" lon="-117.064060">
        <ele>708.415</ele>
        <time>2018-12-28T22:58:13Z</time>
      </trkpt>
      <trkpt lat="34.881010" lon="-117.065050">
        <ele>711.630</ele>
        <time>2018-12-28T22:58:33Z</time>
      </trkpt>
      <trkpt lat="34.878190" lon="-117.068250">
        <ele>714.581</ele>
        <time>2018-12-28T22:58:53Z</time>
      </trkpt>
      <trkpt lat="34.877440" lon="-117.069100">
        <ele>716.124</ele>
        <time>2018-12-28T22:59:13Z</time>
      </trkpt>
      <trkpt lat="34.876520" lon="-117.070160">
        <ele>721.974</ele>
        <time>2018-12-28T22:59:33Z</time>
      </trkpt>
      <trkpt lat="34.875310" lon="-117.071510">
        <ele>728.782</ele>
        <time>2018-12-28T22:59:53Z</time>
      </trkpt>
      <trkpt lat="34.872190" lon="-117.075050">
        <ele>740.143</ele>
        <time>2018-12-28T23:00:13Z</time>
      </trkpt>
      <trkpt lat="34.871690" lon="-117.075630">
        <ele>740.417</ele>
        <time>2018-12-28T23:00:33Z</time>
      </trkpt>
      <trkpt lat="34.870950" lon="-117.076450">
        <ele>742.608</ele>
        <time>2018-12-28T23:00:53Z</time>
      </trkpt>
      <trkpt lat="34.870910" lon="-117.076490">
        <ele>742.881</ele>
        <time>2018-12-28T23:01:13Z</time>
      </trkpt>
      <trkpt lat="34.870720" lon="-117.076720">
        <ele>744.179</ele>
        <time>2018-12-28T23:01:33Z</time>
      </trkpt>
      <trkpt lat="34.870150" lon="-117.077390">
        <ele>744.724</ele>
        <time>2018-12-28T23:01:53Z</time>
      </trkpt>
      <trkpt lat="34.869550" lon="-117.078070">
        <ele>745.075</ele>
        <time>2018-12-28T23:02:13Z</time>
      </trkpt>
      <trkpt lat="34.869170" lon="-117.078490">
        <ele>746.230</ele>
        <time>2018-12-28T23:02:33Z</time>
      </trkpt>
      <trkpt lat="34.868870" lon="-117.078820">
        <ele>747.781</ele>
        <time>2018-12-28T23:02:53Z</time>
      </trkpt>
      <trkpt lat="34.868590" lon="-117.079100">
        <ele>748.824</ele>
        <time>2018-12-28T23:03:13Z</time>
      </trkpt>
      <trkpt lat="34.868250" lon="-117.079440">
        <ele>750.464</ele>
        <time>2018-12-28T23:03:33Z</time>
      </trkpt>
      <trkpt lat="34.868090" lon="-117.079590">
        <ele>750.676</ele>
        <time>2018-12-28T23:03:53Z</time>
      </trkpt>
      <trkpt lat="34.867830" lon="-117.079830">
        <ele>752.290</ele>
        <time>2018-12-28T23:04:13Z</time>
      </trkpt>
      <trkpt lat="34.867570" lon="-117.080030">
        <ele>754.719</ele>
        <time>2018-12-28T23:04:33Z</time>
      </trkpt>
      <trkpt lat="34.867310" lon="-117.080250">
        <ele>756.608</ele>
        <time>2018-12-28T23:04:53Z</time>
      </trkpt>
      <trkpt lat="34.867120" lon="-117.080400">
        <ele>756.710</ele>
        <time>2018-12-28T23:05:13Z</time>
      </trkpt>
      <trkpt lat="34.866790" lon="-117.080640">
        <ele>757.658</ele>
        <time>2018-12-28T23:05:33Z</time>
      </trkpt>
      <trkpt lat="34.866660" lon="-117.080720">
        <ele>757.813</ele>
        <time>2018-12-28T23:05:53Z</time>
      </trkpt>
      <trkpt lat="34.866340" lon="-117.080930">
        <ele>757.874</ele>
        <time>2018-12-28T23:06:13Z</time>
      </trkpt>
      <trkpt lat="34.866000" lon="-117.081160">
        <ele>758.029</ele>
        <time>2018-12-28T23:06:33Z</time>
      </trkpt>
      <trkpt lat="34.865500" lon="-117.081450">
        <ele>757.910</ele>
        <time>2018-12-28T23:06:53Z</time>
      </trkpt>
      <trkpt lat="34.865240" lon="-117.081590">
        <ele>757.893</ele>
        <time>2018-12-28T23:07:13Z</time>
      </trkpt>
      <trkpt lat="34.864580" lon="-117.081900">
        <ele>758.043</ele>
        <time>2018-12-28T23:07:33Z</time>
      </trkpt>
      <trkpt lat="34.864200" lon="-117.082070">
        <ele>757.022</ele>
        <time>2018-12-28T23:07:53Z</time>
      </trkpt>
      <trkpt lat="34.863840" lon="-117.082210">
        <ele>757.962</ele>
        <time>2018-12-28T23:08:13Z</time>
      </trkpt>
      <trkpt lat="34.863370" lon="-117.082370">
        <ele>756.508</ele>
        <time>2018-12-28T23:08:33Z</time>
      </trkpt>
      <trkpt lat="34.862810" lon="-117.082540">
        <ele>755.308</ele>
        <time>2018-12-28T23:08:53Z</time>
      </trkpt>
      <trkpt lat="34.861960" lon="-117.082780">
        <ele>753.045</ele>
        <time>2018-12-28T23:09:13Z</time>
      </trkpt>
      <trkpt lat="34.861350" lon="-117.082960">
        <ele>751.293</ele>
        <time>2018-12-28T23:09:33Z</time>
      </trkpt>
      <trkpt lat="34.858340" lon="-117.083810">
        <ele>739.458</ele>
        <time>2018-12-28T23:09:53Z</time>
      </trkpt>
      <trkpt lat="34.857640" lon="-117.084010">
        <ele>738.529</ele>
        <time>2018-12-28T23:10:13Z</time>
      </trkpt>
      <trkpt lat="34.854610" lon="-117.084880">
        <ele>730.524</ele>
        <time>2018-12-28T23:10:33Z</time>
      </trkpt>
      <trkpt lat="34.853680" lon="-117.085140">
        <ele>727.955</ele>
        <time>2018-12-28T23:10:53Z</time>
      </trkpt>
      <trkpt lat="34.853470" lon="-117.085210">
        <ele>727.798</ele>
        <time>2018-12-28T23:11:13Z</time>
      </trkpt>
      <trkpt lat="34.853190" lon="-117.085300">
        <ele>727.218</ele>
        <time>2018-12-28T23:11:33Z</time>
      </trkpt>
      <trkpt lat="34.852620" lon="-117.085460">
        <ele>726.827</ele>
        <time>2018-12-28T23:11:53Z</time>
      </trkpt>
      <trkpt lat="34.851350" lon="-117.085810">
        <ele>724.868</ele>
        <time>2018-12-28T23:12:13Z</time>
      </trkpt>
      <trkpt lat="34.850600" lon="-117.086040">
        <ele>723.714</ele>
        <time>2018-12-28T23:12:33Z</time>
      </trkpt>
      <trkpt lat="34.850420" lon="-117.086100">
        <ele>723.608</ele>
        <time>2018-12-28T23:12:53Z</time>
      </trkpt>
      <trkpt lat="34.850150" lon="-117.086170">
        <ele>723.445</ele>
        <time>2018-12-28T23:13:13Z</time>
      </trkpt>
      <trkpt lat="34.848520" lon="-117.086640">
        <ele>726.193</ele>
        <time>2018-12-28T23:13:33Z</time>
      </trkpt>
      <trkpt lat="34.847560" lon="-117.086910">
        <ele>726.148</ele>
        <time>2018-12-28T23:13:53Z</time>
      </trkpt>
      <trkpt lat="34.844870" lon="-117.087680">
        <ele>726.179</ele>
        <time>2018-12-28T23:14:13Z</time>
      </trkpt>
      <trkpt lat="34.832850" lon="-117.091110">
        <ele>746.114</ele>
        <time>2018-12-28T23:14:33Z</time>
      </trkpt>
      <trkpt lat="34.827050" lon="-117.092760">
        <ele>757.845</ele>
        <time>2018-12-28T23:14:53Z</time>
      </trkpt>
      <trkpt lat="34.822830" lon="-117.093960">
        <ele>769.498</ele>
        <time>2018-12-28T23:15:13Z</time>
      </trkpt>
      <trkpt lat="34.819910" lon="-117.094780">
        <ele>777.298</ele>
        <time>2018-12-28T23:15:33Z</time>
      </trkpt>
      <trkpt lat="34.816680" lon="-117.095720">
        <ele>789.821</ele>
        <time>2018-12-28T23:15:53Z</time>
      </trkpt>
      <trkpt lat="34.815780" lon="-117.095970">
        <ele>792.141</ele>
        <time>2018-12-28T23:16:13Z</time>
      </trkpt>
      <trkpt lat="34.815670" lon="-117.095990">
        <ele>792.205</ele>
        <time>2018-12-28T23:16:33Z</time>
      </trkpt>
      <trkpt lat="34.813490" lon="-117.096590">
        <ele>798.608</ele>
        <time>2018-12-28T23:16:53Z</time>
      </trkpt>
      <trkpt lat="34.812350" lon="-117.096920">
        <ele>799.145</ele>
        <time>2018-12-28T23:17:13Z</time>
      </trkpt>
      <trkpt lat="34.812010" lon="-117.097030">
        <ele>799.393</ele>
        <time>2018-12-28T23:17:33Z</time>
      </trkpt>
      <trkpt lat="34.811810" lon="-117.097100">
        <ele>799.268</ele>
        <time>2018-12-28T23:17:53Z</time>
      </trkpt>
      <trkpt lat="34.811650" lon="-117.097150">
        <ele>799.429</ele>
        <time>2018-12-28T23:18:13Z</time>
      </trkpt>
      <trkpt lat="34.811400" lon="-117.097250">
        <ele>799.454</ele>
        <time>2018-12-28T23:18:33Z</time>
      </trkpt>
      <trkpt lat="34.811250" lon="-117.097310">
        <ele>799.425</ele>
        <time>2018-12-28T23:18:53Z</time>
      </trkpt>
      <trkpt lat="34.810960" lon="-117.097440">
        <ele>799.558</ele>
        <time>2018-12-28T23:19:13Z</time>
      </trkpt>
      <trkpt lat="34.810650" lon="-117.097580">
        <ele>799.498</ele>
        <time>2018-12-28T23:19:33Z</time>
      </trkpt>
      <trkpt lat="34.810460" lon="-117.097680">
        <ele>799.588</ele>
        <time>2018-12-28T23:19:53Z</time>
      </trkpt>
      <trkpt lat="34.810310" lon="-117.097750">
        <ele>799.524</ele>
        <time>2018-12-28T23:20:13Z</time>
      </trkpt>
      <trkpt lat="34.810160" lon="-117.097840">
        <ele>799.426</ele>
        <time>2018-12-28T23:20:33Z</time>
      </trkpt>
      <trkpt lat="34.809900" lon="-117.097980">
        <ele>799.508</ele>
        <time>2018-12-28T23:20:53Z</time>
      </trkpt>
      <trkpt lat="34.809780" lon="-117.098050">
        <ele>799.511</ele>
        <time>2018-12-28T23:21:13Z</time>
      </trkpt>
      <trkpt lat="34.809550" lon="-117.098190">
        <ele>799.329</ele>
        <time>2018-12-28T23:21:33Z</time>
      </trkpt>
      <trkpt lat="34.809190" lon="-117.098410">
        <ele>799.374</ele>
        <time>2018-12-28T23:21:53Z</time>
      </trkpt>
      <trkpt lat="34.808030" lon="-117.099320">
        <ele>799.075</ele>
        <time>2018-12-28T23:22:13Z</time>
      </trkpt>
      <trkpt lat="34.807780" lon="-117.099510">
        <ele>798.850</ele>
        <time>2018-12-28T23:22:33Z</time>
      </trkpt>
      <trkpt lat="34.807590" lon="-117.099670">
        <ele>798.631</ele>
        <time>2018-12-28T23:22:53Z</time>
      </trkpt>
      <trkpt lat="34.806950" lon="-117.100280">
        <ele>797.964</ele>
        <time>2018-12-28T23:23:13Z</time>
      </trkpt>
      <trkpt lat="34.806530" lon="-117.100710">
        <ele>797.484</ele>
        <time>2018-12-28T23:23:33Z</time>
      </trkpt>
      <trkpt lat="34.806400" lon="-117.100870">
        <ele>797.384</ele>
        <time>2018-12-28T23:23:53Z</time>
      </trkpt>
      <trkpt lat="34.806290" lon="-117.100980">
        <ele>797.207</ele>
        <time>2018-12-28T23:24:13Z</time>
      </trkpt>
      <trkpt lat="34.805860" lon="-117.101480">
        <ele>797.017</ele>
        <time>2018-12-28T23:24:33Z</time>
      </trkpt>
      <trkpt lat="34.804890" lon="-117.102690">
        <ele>796.008</ele>
        <time>2018-12-28T23:24:53Z</time>
      </trkpt>
      <trkpt lat="34.804630" lon="-117.102990">
        <ele>795.991</ele>
        <time>2018-12-28T23:25:13Z</time>
      </trkpt>
      <trkpt lat="34.803940" lon="-117.103840">
        <ele>795.369</ele>
        <time>2018-12-28T23:25:33Z</time>
      </trkpt>
      <trkpt lat="34.803580" lon="-117.104280">
        <ele>795.184</ele>
        <time>2018-12-28T23:25:53Z</time>
      </trkpt>
      <trkpt lat="34.803220" lon="-117.104730">
        <ele>795.255</ele>
        <time>2018-12-28T23:26:13Z</time>
      </trkpt>
      <trkpt lat="34.802820" lon="-117.105230">
        <ele>795.250</ele>
        <time>2018-12-28T23:26:33Z</time>
      </trkpt>
      <trkpt lat="34.802550" lon="-117.105550">
        <ele>795.291</ele>
        <time>2018-12-28T23:26:53Z</time>
      </trkpt>
      <trkpt lat="34.802310" lon="-117.105860">
        <ele>795.494</ele>
        <time>2018-12-28T23:27:13Z</time>
      </trkpt>
      <trkpt lat="34.802160" lon="-117.106050">
        <ele>795.514</ele>
        <time>2018-12-28T23:27:33Z</time>
      </trkpt>
      <trkpt lat="34.802010" lon="-117.106230">
        <ele>795.888</ele>
        <time>2018-12-28T23:27:53Z</time>
      </trkpt>
      <trkpt lat="34.801900" lon="-117.106360">
        <ele>795.924</ele>
        <time>2018-12-28T23:28:13Z</time>
      </trkpt>
      <trkpt lat="34.801720" lon="-117.106590">
        <ele>795.926</ele>
        <time>2018-12-28T23:28:33Z</time>
      </trkpt>
      <trkpt lat="34.801300" lon="-117.107110">
        <ele>796.008</ele>
        <time>2018-12-28T23:28:53Z</time>
      </trkpt>
      <trkpt lat="34.801060" lon="-117.107400">
        <ele>796.021</ele>
        <time>2018-12-28T23:29:13Z</time>
      </trkpt>
      <trkpt lat="34.800790" lon="-117.107750">
        <ele>796.089</ele>
        <time>2018-12-28T23:29:33Z</time>
      </trkpt>
      <trkpt lat="34.800570" lon="-117.108010">
        <ele>796.114</ele>
        <time>2018-12-28T23:29:53Z</time>
      </trkpt>
      <trkpt lat="34.800430" lon="-117.108190">
        <ele>796.245</ele>
        <time>2018-12-28T23:30:13Z</time>
      </trkpt>
      <trkpt lat="34.800290" lon="-117.108370">
        <ele>796.270</ele>
        <time>2018-12-28T23:30:33Z</time>
      </trkpt>
      <trkpt lat="34.799970" lon="-117.108750">
        <ele>796.421</ele>
        <time>2018-12-28T23:30:53Z</time>
      </trkpt>
      <trkpt lat="34.799290" lon="-117.109620">
        <ele>796.814</ele>
        <time>2018-12-28T23:31:13Z</time>
      </trkpt>
      <trkpt lat="34.799050" lon="-117.109920">
        <ele>796.844</ele>
        <time>2018-12-28T23:31:33Z</time>
      </trkpt>
      <trkpt lat="34.798770" lon="-117.110270">
        <ele>796.954</ele>
        <time>2018-12-28T23:31:53Z</time>
      </trkpt>
      <trkpt lat="34.797820" lon="-117.111460">
        <ele>797.056</ele>
        <time>2018-12-28T23:32:13Z</time>
      </trkpt>
      <trkpt lat="34.797670" lon="-117.111650">
        <ele>797.111</ele>
        <time>2018-12-28T23:32:33Z</time>
      </trkpt>
      <trkpt lat="34.797560" lon="-117.111780">
        <ele>797.108</ele>
        <time>2018-12-28T23:32:53Z</time>
      </trkpt>
      <trkpt lat="34.796970" lon="-117.112510">
        <ele>797.318</ele>
        <time>2018-12-28T23:33:13Z</time>
      </trkpt>
      <trkpt lat="34.796830" lon="-117.112690">
        <ele>797.246</ele>
        <time>2018-12-28T23:33:33Z</time>
      </trkpt>
      <trkpt lat="34.796500" lon="-117.113090">
        <ele>797.241</ele>
        <time>2018-12-28T23:33:53Z</time>
      </trkpt>
      <trkpt lat="34.795500" lon="-117.114340">
        <ele>797.152</ele>
        <time>2018-12-28T23:34:13Z</time>
      </trkpt>
      <trkpt lat="34.794650" lon="-117.115400">
        <ele>797.277</ele>
        <time>2018-12-28T23:34:33Z</time>
      </trkpt>
      <trkpt lat="34.794610" lon="-117.115450">
        <ele>797.268</ele>
        <time>2018-12-28T23:34:53Z</time>
      </trkpt>
      <trkpt lat="34.793280" lon="-117.117110">
        <ele>797.081</ele>
        <time>2018-12-28T23:35:13Z</time>
      </trkpt>
      <trkpt lat="34.790860" lon="-117.120130">
        <ele>799.331</ele>
        <time>2018-12-28T23:35:33Z</time>
      </trkpt>
      <trkpt lat="34.790150" lon="-117.121010">
        <ele>799.488</ele>
        <time>2018-12-28T23:35:53Z</time>
      </trkpt>
      <trkpt lat="34.787770" lon="-117.123980">
        <ele>803.124</ele>
        <time>2018-12-28T23:36:13Z</time>
      </trkpt>
      <trkpt lat="34.786040" lon="-117.126110">
        <ele>806.526</ele>
        <time>2018-12-28T23:36:33Z</time>
      </trkpt>
      <trkpt lat="34.785570" lon="-117.126690">
        <ele>807.108</ele>
        <time>2018-12-28T23:36:53Z</time>
      </trkpt>
      <trkpt lat="34.785010" lon="-117.127380">
        <ele>807.921</ele>
        <time>2018-12-28T23:37:13Z</time>
      </trkpt>
      <trkpt lat="34.784040" lon="-117.128570">
        <ele>810.519</ele>
        <time>2018-12-28T23:37:33Z</time>
      </trkpt>
      <trkpt lat="34.781800" lon="-117.131350">
        <ele>812.924</ele>
        <time>2018-12-28T23:37:53Z</time>
      </trkpt>
      <trkpt lat="34.780520" lon="-117.132960">
        <ele>814.335</ele>
        <time>2018-12-28T23:38:13Z</time>
      </trkpt>
      <trkpt lat="34.779510" lon="-117.134190">
        <ele>817.640</ele>
        <time>2018-12-28T23:38:33Z</time>
      </trkpt>
      <trkpt lat="34.777920" lon="-117.136190">
        <ele>817.611</ele>
        <time>2018-12-28T23:38:53Z</time>
      </trkpt>
      <trkpt lat="34.774030" lon="-117.140990">
        <ele>817.724</ele>
        <time>2018-12-28T23:39:13Z</time>
      </trkpt>
      <trkpt lat="34.773270" lon="-117.141920">
        <ele>817.894</ele>
        <time>2018-12-28T23:39:33Z</time>
      </trkpt>
      <trkpt lat="34.766840" lon="-117.149870">
        <ele>824.028</ele>
        <time>2018-12-28T23:39:53Z</time>
      </trkpt>
      <trkpt lat="34.763920" lon="-117.153510">
        <ele>836.389</ele>
        <time>2018-12-28T23:40:13Z</time>
      </trkpt>
      <trkpt lat="34.756000" lon="-117.163310">
        <ele>852.517</ele>
        <time>2018-12-28T23:40:33Z</time>
      </trkpt>
      <trkpt lat="34.755760" lon="-117.163610">
        <ele>853.308</ele>
        <time>2018-12-28T23:40:53Z</time>
      </trkpt>
      <trkpt lat="34.754980" lon="-117.164580">
        <ele>854.635</ele>
        <time>2018-12-28T23:41:13Z</time>
      </trkpt>
      <trkpt lat="34.754120" lon="-117.165600">
        <ele>858.633</ele>
        <time>2018-12-28T23:41:33Z</time>
      </trkpt>
      <trkpt lat="34.753580" lon="-117.166170">
        <ele>859.048</ele>
        <time>2018-12-28T23:41:53Z</time>
      </trkpt>
      <trkpt lat="34.753130" lon="-117.166640">
        <ele>859.229</ele>
        <time>2018-12-28T23:42:13Z</time>
      </trkpt>
      <trkpt lat="34.753120" lon="-117.166650">
        <ele>859.244</ele>
        <time>2018-12-28T23:42:33Z</time>
      </trkpt>
      <trkpt lat="34.752820" lon="-117.166950">
        <ele>859.575</ele>
        <time>2018-12-28T23:42:53Z</time>
      </trkpt>
      <trkpt lat="34.752190" lon="-117.167550">
        <ele>860.028</ele>
        <time>2018-12-28T23:43:13Z</time>
      </trkpt>
      <trkpt lat="34.751580" lon="-117.168130">
        <ele>861.438</ele>
        <time>2018-12-28T23:43:33Z</time>
      </trkpt>
      <trkpt lat="34.751350" lon="-117.168340">
        <ele>862.017</ele>
        <time>2018-12-28T23:43:53Z</time>
      </trkpt>
      <trkpt lat="34.750990" lon="-117.168660">
        <ele>862.487</ele>
        <time>2018-12-28T23:44:13Z</time>
      </trkpt>
      <trkpt lat="34.750600" lon="-117.169030">
        <ele>862.515</ele>
        <time>2018-12-28T23:44:33Z</time>
      </trkpt>
      <trkpt lat="34.750150" lon="-117.169440">
        <ele>864.408</ele>
        <time>2018-12-28T23:44:53Z</time>
      </trkpt>
      <trkpt lat="34.749010" lon="-117.170480">
        <ele>866.364</ele>
        <time>2018-12-28T23:45:13Z</time>
      </trkpt>
      <trkpt lat="34.747030" lon="-117.172270">
        <ele>872.212</ele>
        <time>2018-12-28T23:45:33Z</time>
      </trkpt>
      <trkpt lat="34.746110" lon="-117.173110">
        <ele>873.037</ele>
        <time>2018-12-28T23:45:53Z</time>
      </trkpt>
      <trkpt lat="34.745810" lon="-117.173380">
        <ele>873.238</ele>
        <time>2018-12-28T23:46:13Z</time>
      </trkpt>
      <trkpt lat="34.745680" lon="-117.173500">
        <ele>873.253</ele>
        <time>2018-12-28T23:46:33Z</time>
      </trkpt>
      <trkpt lat="34.745550" lon="-117.173630">
        <ele>874.014</ele>
        <time>2018-12-28T23:46:53Z</time>
      </trkpt>
      <trkpt lat="34.745170" lon="-117.173960">
        <ele>878.287</ele>
        <time>2018-12-28T23:47:13Z</time>
      </trkpt>
      <trkpt lat="34.734840" lon="-117.183350">
        <ele>891.157</ele>
        <time>2018-12-28T23:47:33Z</time>
      </trkpt>
      <trkpt lat="34.732780" lon="-117.185230">
        <ele>892.024</ele>
        <time>2018-12-28T23:47:53Z</time>
      </trkpt>
      <trkpt lat="34.730930" lon="-117.186910">
        <ele>891.404</ele>
        <time>2018-12-28T23:48:13Z</time>
      </trkpt>
      <trkpt lat="34.730030" lon="-117.187740">
        <ele>886.914</ele>
        <time>2018-12-28T23:48:33Z</time>
      </trkpt>
      <trkpt lat="34.729920" lon="-117.187850">
        <ele>886.308</ele>
        <time>2018-12-28T23:48:53Z</time>
      </trkpt>
      <trkpt lat="34.729040" lon="-117.188670">
        <ele>888.255</ele>
        <time>2018-12-28T23:49:13Z</time>
      </trkpt>
      <trkpt lat="34.728830" lon="-117.188870">
        <ele>889.533</ele>
        <time>2018-12-28T23:49:33Z</time>
      </trkpt>
      <trkpt lat="34.725570" lon="-117.191810">
        <ele>896.988</ele>
        <time>2018-12-28T23:49:53Z</time>
      </trkpt>
      <trkpt lat="34.725010" lon="-117.192250">
        <ele>897.799</ele>
        <time>2018-12-28T23:50:13Z</time>
      </trkpt>
      <trkpt lat="34.723520" lon="-117.193460">
        <ele>902.934</ele>
        <time>2018-12-28T23:50:33Z</time>
      </trkpt>
      <trkpt lat="34.723260" lon="-117.193650">
        <ele>903.055</ele>
        <time>2018-12-28T23:50:53Z</time>
      </trkpt>
      <trkpt lat="34.722500" lon="-117.194180">
        <ele>903.398</ele>
        <time>2018-12-28T23:51:13Z</time>
      </trkpt>
      <trkpt lat="34.721870" lon="-117.194590">
        <ele>903.428</ele>
        <time>2018-12-28T23:51:33Z</time>
      </trkpt>
      <trkpt lat="34.721340" lon="-117.194930">
        <ele>903.972</ele>
        <time>2018-12-28T23:51:53Z</time>
      </trkpt>
      <trkpt lat="34.720870" lon="-117.195200">
        <ele>904.013</ele>
        <time>2018-12-28T23:52:13Z</time>
      </trkpt>
      <trkpt lat="34.720380" lon="-117.195490">
        <ele>904.414</ele>
        <time>2018-12-28T23:52:33Z</time>
      </trkpt>
      <trkpt lat="34.719930" lon="-117.195730">
        <ele>904.408</ele>
        <time>2018-12-28T23:52:53Z</time>
      </trkpt>
      <trkpt lat="34.717110" lon="-117.197240">
        <ele>904.610</ele>
        <time>2018-12-28T23:53:13Z</time>
      </trkpt>
      <trkpt lat="34.714560" lon="-117.198600">
        <ele>904.148</ele>
        <time>2018-12-28T23:53:33Z</time>
      </trkpt>
      <trkpt lat="34.712390" lon="-117.199760">
        <ele>904.523</ele>
        <time>2018-12-28T23:53:53Z</time>
      </trkpt>
      <trkpt lat="34.710390" lon="-117.200830">
        <ele>903.594</ele>
        <time>2018-12-28T23:54:13Z</time>
      </trkpt>
      <trkpt lat="34.707910" lon="-117.202150">
        <ele>906.199</ele>
        <time>2018-12-28T23:54:33Z</time>
      </trkpt>
      <trkpt lat="34.706610" lon="-117.202850">
        <ele>905.930</ele>
        <time>2018-12-28T23:54:53Z</time>
      </trkpt>
      <trkpt lat="34.706440" lon="-117.202940">
        <ele>906.533</ele>
        <time>2018-12-28T23:55:13Z</time>
      </trkpt>
      <trkpt lat="34.704460" lon="-117.204000">
        <ele>905.143</ele>
        <time>2018-12-28T23:55:33Z</time>
      </trkpt>
      <trkpt lat="34.703360" lon="-117.204600">
        <ele>905.019</ele>
        <time>2018-12-28T23:55:53Z</time>
      </trkpt>
      <trkpt lat="34.701840" lon="-117.205380">
        <ele>901.809</ele>
        <time>2018-12-28T23:56:13Z</time>
      </trkpt>
      <trkpt lat="34.701670" lon="-117.205480">
        <ele>902.119</ele>
        <time>2018-12-28T23:56:33Z</time>
      </trkpt>
      <trkpt lat="34.698780" lon="-117.206980">
        <ele>893.208</ele>
        <time>2018-12-28T23:56:53Z</time>
      </trkpt>
      <trkpt lat="34.698450" lon="-117.207150">
        <ele>892.124</ele>
        <time>2018-12-28T23:57:13Z</time>
      </trkpt>
      <trkpt lat="34.697940" lon="-117.207440">
        <ele>896.892</ele>
        <time>2018-12-28T23:57:33Z</time>
      </trkpt>
      <trkpt lat="34.697470" lon="-117.207690">
        <ele>897.077</ele>
        <time>2018-12-28T23:57:53Z</time>
      </trkpt>
      <trkpt lat="34.697220" lon="-117.207820">
        <ele>897.078</ele>
        <time>2018-12-28T23:58:13Z</time>
      </trkpt>
      <trkpt lat="34.696810" lon="-117.208040">
        <ele>897.573</ele>
        <time>2018-12-28T23:58:33Z</time>
      </trkpt>
      <trkpt lat="34.696600" lon="-117.208150">
        <ele>898.064</ele>
        <time>2018-12-28T23:58:53Z</time>
      </trkpt>
      <trkpt lat="34.696360" lon="-117.208280">
        <ele>899.637</ele>
        <time>2018-12-28T23:59:13Z</time>
      </trkpt>
      <trkpt lat="34.696110" lon="-117.208430">
        <ele>901.927</ele>
        <time>2018-12-28T23:59:33Z</time>
      </trkpt>
      <trkpt lat="34.695870" lon="-117.208560">
        <ele>903.054</ele>
        <time>2018-12-28T23:59:53Z</time>
      </trkpt>
      <trkpt lat="34.694870" lon="-117.209090">
        <ele>904.756</ele>
        <time>2018-12-29T00:00:13Z</time>
      </trkpt>
      <trkpt lat="34.694550" lon="-117.209270">
        <ele>908.011</ele>
        <time>2018-12-29T00:00:33Z</time>
      </trkpt>
      <trkpt lat="34.693860" lon="-117.209630">
        <ele>909.208</ele>
        <time>2018-12-29T00:00:53Z</time>
      </trkpt>
      <trkpt lat="34.693480" lon="-117.209820">
        <ele>909.218</ele>
        <time>2018-12-29T00:01:13Z</time>
      </trkpt>
      <trkpt lat="34.693090" lon="-117.210040">
        <ele>910.376</ele>
        <time>2018-12-29T00:01:33Z</time>
      </trkpt>
      <trkpt lat="34.692620" lon="-117.210300">
        <ele>913.941</ele>
        <time>2018-12-29T00:01:53Z</time>
      </trkpt>
      <trkpt lat="34.692130" lon="-117.210560">
        <ele>915.492</ele>
        <time>2018-12-29T00:02:13Z</time>
      </trkpt>
      <trkpt lat="34.691650" lon="-117.210810">
        <ele>915.597</ele>
        <time>2018-12-29T00:02:33Z</time>
      </trkpt>
      <trkpt lat="34.691280" lon="-117.211000">
        <ele>915.548</ele>
        <time>2018-12-29T00:02:53Z</time>
      </trkpt>
      <trkpt lat="34.690920" lon="-117.211190">
        <ele>917.381</ele>
        <time>2018-12-29T00:03:13Z</time>
      </trkpt>
      <trkpt lat="34.690310" lon="-117.211530">
        <ele>921.491</ele>
        <time>2018-12-29T00:03:33Z</time>
      </trkpt>
      <trkpt lat="34.689840" lon="-117.211770">
        <ele>921.591</ele>
        <time>2018-12-29T00:03:53Z</time>
      </trkpt>
      <trkpt lat="34.689590" lon="-117.211900">
        <ele>922.081</ele>
        <time>2018-12-29T00:04:13Z</time>
      </trkpt>
      <trkpt lat="34.689350" lon="-117.212030">
        <ele>923.819</ele>
        <time>2018-12-29T00:04:33Z</time>
      </trkpt>
      <trkpt lat="34.689110" lon="-117.212150">
        <ele>925.208</ele>
        <time>2018-12-29T00:04:53Z</time>
      </trkpt>
      <trkpt lat="34.688860" lon="-117.212260">
        <ele>926.262</ele>
        <time>2018-12-29T00:05:13Z</time>
      </trkpt>
      <trkpt lat="34.688620" lon="-117.212360">
        <ele>927.110</ele>
        <time>2018-12-29T00:05:33Z</time>
      </trkpt>
      <trkpt lat="34.688350" lon="-117.212470">
        <ele>927.655</ele>
        <time>2018-12-29T00:05:53Z</time>
      </trkpt>
      <trkpt lat="34.687900" lon="-117.212620">
        <ele>927.886</ele>
        <time>2018-12-29T00:06:13Z</time>
      </trkpt>
      <trkpt lat="34.687610" lon="-117.212720">
        <ele>928.231</ele>
        <time>2018-12-29T00:06:33Z</time>
      </trkpt>
      <trkpt lat="34.687170" lon="-117.212860">
        <ele>932.932</ele>
        <time>2018-12-29T00:06:53Z</time>
      </trkpt>
      <trkpt lat="34.686840" lon="-117.212940">
        <ele>934.345</ele>
        <time>2018-12-29T00:07:13Z</time>
      </trkpt>
      <trkpt lat="34.686380" lon="-117.213040">
        <ele>935.755</ele>
        <time>2018-12-29T00:07:33Z</time>
      </trkpt>
      <trkpt lat="34.686180" lon="-117.213080">
        <ele>936.885</ele>
        <time>2018-12-29T00:07:53Z</time>
      </trkpt>
      <trkpt lat="34.686040" lon="-117.213100">
        <ele>937.489</ele>
        <time>2018-12-29T00:08:13Z</time>
      </trkpt>
      <trkpt lat="34.685850" lon="-117.213130">
        <ele>937.917</ele>
        <time>2018-12-29T00:08:33Z</time>
      </trkpt>
      <trkpt lat="34.685520" lon="-117.213180">
        <ele>938.408</ele>
        <time>2018-12-29T00:08:53Z</time>
      </trkpt>
      <trkpt lat="34.685260" lon="-117.213210">
        <ele>938.621</ele>
        <time>2018-12-29T00:09:13Z</time>
      </trkpt>
      <trkpt lat="34.684940" lon="-117.213240">
        <ele>939.059</ele>
        <time>2018-12-29T00:09:33Z</time>
      </trkpt>
      <trkpt lat="34.684820" lon="-117.213260">
        <ele>939.464</ele>
        <time>2018-12-29T00:09:53Z</time>
      </trkpt>
      <trkpt lat="34.684450" lon="-117.213280">
        <ele>941.225</ele>
        <time>2018-12-29T00:10:13Z</time>
      </trkpt>
      <trkpt lat="34.683890" lon="-117.213280">
        <ele>943.930</ele>
        <time>2018-12-29T00:10:33Z</time>
      </trkpt>
      <trkpt lat="34.683310" lon="-117.213260">
        <ele>945.121</ele>
        <time>2018-12-29T00:10:53Z</time>
      </trkpt>
      <trkpt lat="34.683000" lon="-117.213240">
        <ele>945.764</ele>
        <time>2018-12-29T00:11:13Z</time>
      </trkpt>
      <trkpt lat="34.682720" lon="-117.213220">
        <ele>946.564</ele>
        <time>2018-12-29T00:11:33Z</time>
      </trkpt>
      <trkpt lat="34.682490" lon="-117.213180">
        <ele>947.036</ele>
        <time>2018-12-29T00:11:53Z</time>
      </trkpt>
      <trkpt lat="34.682270" lon="-117.213150">
        <ele>947.717</ele>
        <time>2018-12-29T00:12:13Z</time>
      </trkpt>
      <trkpt lat="34.681810" lon="-117.213060">
        <ele>951.118</ele>
        <time>2018-12-29T00:12:33Z</time>
      </trkpt>
      <trkpt lat="34.681510" lon="-117.213000">
        <ele>951.108</ele>
        <time>2018-12-29T00:12:53Z</time>
      </trkpt>
      <trkpt lat="34.681090" lon="-117.212900">
        <ele>951.036</ele>
        <time>2018-12-29T00:13:13Z</time>
      </trkpt>
      <trkpt lat="34.680860" lon="-117.212840">
        <ele>951.034</ele>
        <time>2018-12-29T00:13:33Z</time>
      </trkpt>
      <trkpt lat="34.680670" lon="-117.212780">
        <ele>951.249</ele>
        <time>2018-12-29T00:13:53Z</time>
      </trkpt>
      <trkpt lat="34.679640" lon="-117.212490">
        <ele>957.450</ele>
        <time>2018-12-29T00:14:13Z</time>
      </trkpt>
      <trkpt lat="34.679350" lon="-117.212400">
        <ele>958.215</ele>
        <time>2018-12-29T00:14:33Z</time>
      </trkpt>
      <trkpt lat="34.678490" lon="-117.212160">
        <ele>963.156</ele>
        <time>2018-12-29T00:14:53Z</time>
      </trkpt>
      <trkpt lat="34.678090" lon="-117.212040">
        <ele>963.339</ele>
        <time>2018-12-29T00:15:13Z</time>
      </trkpt>
      <trkpt lat="34.677850" lon="-117.211970">
        <ele>962.919</ele>
        <time>2018-12-29T00:15:33Z</time>
      </trkpt>
      <trkpt lat="34.677340" lon="-117.211830">
        <ele>964.292</ele>
        <time>2018-12-29T00:15:53Z</time>
      </trkpt>
      <trkpt lat="34.676990" lon="-117.211730">
        <ele>966.173</ele>
        <time>2018-12-29T00:16:13Z</time>
      </trkpt>
      <trkpt lat="34.676510" lon="-117.211590">
        <ele>966.420</ele>
        <time>2018-12-29T00:16:33Z</time>
      </trkpt>
      <trkpt lat="34.675980" lon="-117.211440">
        <ele>965.708</ele>
        <time>2018-12-29T00:16:53Z</time>
      </trkpt>
      <trkpt lat="34.675250" lon="-117.211230">
        <ele>970.472</ele>
        <time>2018-12-29T00:17:13Z</time>
      </trkpt>
      <trkpt lat="34.674620" lon="-117.211040">
        <ele>972.260</ele>
        <time>2018-12-29T00:17:33Z</time>
      </trkpt>
      <trkpt lat="34.674180" lon="-117.210920">
        <ele>974.095</ele>
        <time>2018-12-29T00:17:53Z</time>
      </trkpt>
      <trkpt lat="34.674000" lon="-117.210870">
        <ele>975.016</ele>
        <time>2018-12-29T00:18:13Z</time>
      </trkpt>
      <trkpt lat="34.673500" lon="-117.210720">
        <ele>976.921</ele>
        <time>2018-12-29T00:18:33Z</time>
      </trkpt>
      <trkpt lat="34.672980" lon="-117.210570">
        <ele>977.862</ele>
        <time>2018-12-29T00:18:53Z</time>
      </trkpt>
      <trkpt lat="34.672590" lon="-117.210460">
        <ele>981.345</ele>
        <time>2018-12-29T00:19:13Z</time>
      </trkpt>
      <trkpt lat="34.672200" lon="-117.210360">
        <ele>982.975</ele>
        <time>2018-12-29T00:19:33Z</time>
      </trkpt>
      <trkpt lat="34.672110" lon="-117.210340">
        <ele>983.367</ele>
        <time>2018-12-29T00:19:53Z</time>
      </trkpt>
      <trkpt lat="34.671870" lon="-117.210290">
        <ele>984.881</ele>
        <time>2018-12-29T00:20:13Z</time>
      </trkpt>
      <trkpt lat="34.671620" lon="-117.210240">
        <ele>985.819</ele>
        <time>2018-12-29T00:20:33Z</time>
      </trkpt>
      <trkpt lat="34.671350" lon="-117.210200">
        <ele>986.408</ele>
        <time>2018-12-29T00:20:53Z</time>
      </trkpt>
      <trkpt lat="34.671110" lon="-117.210160">
        <ele>986.529</ele>
        <time>2018-12-29T00:21:13Z</time>
      </trkpt>
      <trkpt lat="34.670720" lon="-117.210120">
        <ele>987.017</ele>
        <time>2018-12-29T00:21:33Z</time>
      </trkpt>
      <trkpt lat="34.670350" lon="-117.210080">
        <ele>988.272</ele>
        <time>2018-12-29T00:21:53Z</time>
      </trkpt>
      <trkpt lat="34.670040" lon="-117.210070">
        <ele>988.953</ele>
        <time>2018-12-29T00:22:13Z</time>
      </trkpt>
      <trkpt lat="34.669840" lon="-117.210060">
        <ele>989.318</ele>
        <time>2018-12-29T00:22:33Z</time>
      </trkpt>
      <trkpt lat="34.669580" lon="-117.210050">
        <ele>989.139</ele>
        <time>2018-12-29T00:22:53Z</time>
      </trkpt>
      <trkpt lat="34.669420" lon="-117.210060">
        <ele>989.352</ele>
        <time>2018-12-29T00:23:13Z</time>
      </trkpt>
      <trkpt lat="34.669200" lon="-117.210060">
        <ele>989.362</ele>
        <time>2018-12-29T00:23:33Z</time>
      </trkpt>
      <trkpt lat="34.669070" lon="-117.210070">
        <ele>989.343</ele>
        <time>2018-12-29T00:23:53Z</time>
      </trkpt>
      <trkpt lat="34.668770" lon="-117.210080">
        <ele>989.064</ele>
        <time>2018-12-29T00:24:13Z</time>
      </trkpt>
      <trkpt lat="34.668530" lon="-117.210100">
        <ele>988.510</ele>
        <time>2018-12-29T00:24:33Z</time>
      </trkpt>
      <trkpt lat="34.668190" lon="-117.210140">
        <ele>988.408</ele>
        <time>2018-12-29T00:24:53Z</time>
      </trkpt>
      <trkpt lat="34.667880" lon="-117.210180">
        <ele>988.557</ele>
        <time>2018-12-29T00:25:13Z</time>
      </trkpt>
      <trkpt lat="34.667560" lon="-117.210240">
        <ele>988.675</ele>
        <time>2018-12-29T00:25:33Z</time>
      </trkpt>
      <trkpt lat="34.667530" lon="-117.210240">
        <ele>988.570</ele>
        <time>2018-12-29T00:25:53Z</time>
      </trkpt>
      <trkpt lat="34.667330" lon="-117.210280">
        <ele>988.541</ele>
        <time>2018-12-29T00:26:13Z</time>
      </trkpt>
      <trkpt lat="34.667150" lon="-117.210320">
        <ele>988.486</ele>
        <time>2018-12-29T00:26:33Z</time>
      </trkpt>
      <trkpt lat="34.666930" lon="-117.210370">
        <ele>988.487</ele>
        <time>2018-12-29T00:26:53Z</time>
      </trkpt>
      <trkpt lat="34.666650" lon="-117.210440">
        <ele>988.360</ele>
        <time>2018-12-29T00:27:13Z</time>
      </trkpt>
      <trkpt lat="34.666380" lon="-117.210520">
        <ele>988.280</ele>
        <time>2018-12-29T00:27:33Z</time>
      </trkpt>
      <trkpt lat="34.666190" lon="-117.210570">
        <ele>988.235</ele>
        <time>2018-12-29T00:27:53Z</time>
      </trkpt>
      <trkpt lat="34.665970" lon="-117.210640">
        <ele>988.186</ele>
        <time>2018-12-29T00:28:13Z</time>
      </trkpt>
      <trkpt lat="34.665630" lon="-117.210740">
        <ele>988.014</ele>
        <time>2018-12-29T00:28:33Z</time>
      </trkpt>
      <trkpt lat="34.665420" lon="-117.210800">
        <ele>988.008</ele>
        <time>2018-12-29T00:28:53Z</time>
      </trkpt>
      <trkpt lat="34.665200" lon="-117.210870">
        <ele>987.696</ele>
        <time>2018-12-29T00:29:13Z</time>
      </trkpt>
      <trkpt lat="34.664490" lon="-117.211080">
        <ele>986.824</ele>
        <time>2018-12-29T00:29:33Z</time>
      </trkpt>
      <trkpt lat="34.663600" lon="-117.211360">
        <ele>985.959</ele>
        <time>2018-12-29T00:29:53Z</time>
      </trkpt>
      <trkpt lat="34.662870" lon="-117.211580">
        <ele>985.250</ele>
        <time>2018-12-29T00:30:13Z</time>
      </trkpt>
      <trkpt lat="34.662400" lon="-117.211730">
        <ele>984.875</ele>
        <time>2018-12-29T00:30:33Z</time>
      </trkpt>
      <trkpt lat="34.661470" lon="-117.212010">
        <ele>984.126</ele>
        <time>2018-12-29T00:30:53Z</time>
      </trkpt>
      <trkpt lat="34.660690" lon="-117.212250">
        <ele>983.049</ele>
        <time>2018-12-29T00:31:13Z</time>
      </trkpt>
      <trkpt lat="34.660580" lon="-117.212290">
        <ele>983.049</ele>
        <time>2018-12-29T00:31:33Z</time>
      </trkpt>
      <trkpt lat="34.660110" lon="-117.212430">
        <ele>983.024</ele>
        <time>2018-12-29T00:31:53Z</time>
      </trkpt>
      <trkpt lat="34.659760" lon="-117.212540">
        <ele>982.704</ele>
        <time>2018-12-29T00:32:13Z</time>
      </trkpt>
      <trkpt lat="34.659320" lon="-117.212680">
        <ele>982.314</ele>
        <time>2018-12-29T00:32:33Z</time>
      </trkpt>
      <trkpt lat="34.659050" lon="-117.212760">
        <ele>981.408</ele>
        <time>2018-12-29T00:32:53Z</time>
      </trkpt>
      <trkpt lat="34.658820" lon="-117.212830">
        <ele>980.925</ele>
        <time>2018-12-29T00:33:13Z</time>
      </trkpt>
      <trkpt lat="34.658040" lon="-117.213060">
        <ele>978.633</ele>
        <time>2018-12-29T00:33:33Z</time>
      </trkpt>
      <trkpt lat="34.657600" lon="-117.213190">
        <ele>977.988</ele>
        <time>2018-12-29T00:33:53Z</time>
      </trkpt>
      <trkpt lat="34.657170" lon="-117.213320">
        <ele>977.469</ele>
        <time>2018-12-29T00:34:13Z</time>
      </trkpt>
      <trkpt lat="34.656820" lon="-117.213430">
        <ele>976.894</ele>
        <time>2018-12-29T00:34:33Z</time>
      </trkpt>
      <trkpt lat="34.656450" lon="-117.213540">
        <ele>976.495</ele>
        <time>2018-12-29T00:34:53Z</time>
      </trkpt>
      <trkpt lat="34.656280" lon="-117.213590">
        <ele>976.378</ele>
        <time>2018-12-29T00:35:13Z</time>
      </trkpt>
      <trkpt lat="34.655860" lon="-117.213720">
        <ele>976.328</ele>
        <time>2018-12-29T00:35:33Z</time>
      </trkpt>
      <trkpt lat="34.655620" lon="-117.213790">
        <ele>976.273</ele>
        <time>2018-12-29T00:35:53Z</time>
      </trkpt>
      <trkpt lat="34.655260" lon="-117.213910">
        <ele>976.285</ele>
        <time>2018-12-29T00:36:13Z</time>
      </trkpt>
      <trkpt lat="34.654940" lon="-117.214010">
        <ele>976.213</ele>
        <time>2018-12-29T00:36:33Z</time>
      </trkpt>
      <trkpt lat="34.654530" lon="-117.214130">
        <ele>976.208</ele>
        <time>2018-12-29T00:36:53Z</time>
      </trkpt>
      <trkpt lat="34.654130" lon="-117.214250">
        <ele>976.280</ele>
        <time>2018-12-29T00:37:13Z</time>
      </trkpt>
      <trkpt lat="34.653740" lon="-117.214360">
        <ele>976.298</ele>
        <time>2018-12-29T00:37:33Z</time>
      </trkpt>
      <trkpt lat="34.653320" lon="-117.214500">
        <ele>975.813</ele>
        <time>2018-12-29T00:37:53Z</time>
      </trkpt>
      <trkpt lat="34.653040" lon="-117.214590">
        <ele>974.444</ele>
        <time>2018-12-29T00:38:13Z</time>
      </trkpt>
      <trkpt lat="34.652690" lon="-117.214700">
        <ele>972.339</ele>
        <time>2018-12-29T00:38:33Z</time>
      </trkpt>
      <trkpt lat="34.652430" lon="-117.214780">
        <ele>971.750</ele>
        <time>2018-12-29T00:38:53Z</time>
      </trkpt>
      <trkpt lat="34.652060" lon="-117.214890">
        <ele>971.483</ele>
        <time>2018-12-29T00:39:13Z</time>
      </trkpt>
      <trkpt lat="34.651850" lon="-117.214950">
        <ele>971.253</ele>
        <time>2018-12-29T00:39:33Z</time>
      </trkpt>
      <trkpt lat="34.651370" lon="-117.215090">
        <ele>970.997</ele>
        <time>2018-12-29T00:39:53Z</time>
      </trkpt>
      <trkpt lat="34.650920" lon="-117.215230">
        <ele>971.523</ele>
        <time>2018-12-29T00:40:13Z</time>
      </trkpt>
      <trkpt lat="34.650570" lon="-117.215330">
        <ele>971.525</ele>
        <time>2018-12-29T00:40:33Z</time>
      </trkpt>
      <trkpt lat="34.650350" lon="-117.215400">
        <ele>971.108</ele>
        <time>2018-12-29T00:40:53Z</time>
      </trkpt>
      <trkpt lat="34.650100" lon="-117.215480">
        <ele>970.442</ele>
        <time>2018-12-29T00:41:13Z</time>
      </trkpt>
      <trkpt lat="34.649630" lon="-117.215620">
        <ele>969.970</ele>
        <time>2018-12-29T00:41:33Z</time>
      </trkpt>
      <trkpt lat="34.649190" lon="-117.215750">
        <ele>969.555</ele>
        <time>2018-12-29T00:41:53Z</time>
      </trkpt>
      <trkpt lat="34.648810" lon="-117.215860">
        <ele>969.376</ele>
        <time>2018-12-29T00:42:13Z</time>
      </trkpt>
      <trkpt lat="34.648610" lon="-117.215930">
        <ele>969.471</ele>
        <time>2018-12-29T00:42:33Z</time>
      </trkpt>
      <trkpt lat="34.648390" lon="-117.216000">
        <ele>969.412</ele>
        <time>2018-12-29T00:42:53Z</time>
      </trkpt>
      <trkpt lat="34.648260" lon="-117.216050">
        <ele>969.485</ele>
        <time>2018-12-29T00:43:13Z</time>
      </trkpt>
      <trkpt lat="34.648210" lon="-117.216060">
        <ele>969.375</ele>
        <time>2018-12-29T00:43:33Z</time>
      </trkpt>
      <trkpt lat="34.648120" lon="-117.216100">
        <ele>969.239</ele>
        <time>2018-12-29T00:43:53Z</time>
      </trkpt>
      <trkpt lat="34.647970" lon="-117.216160">
        <ele>969.001</ele>
        <time>2018-12-29T00:44:13Z</time>
      </trkpt>
      <trkpt lat="34.647850" lon="-117.216200">
        <ele>968.821</ele>
        <time>2018-12-29T00:44:33Z</time>
      </trkpt>
      <trkpt lat="34.647630" lon="-117.216280">
        <ele>968.408</ele>
        <time>2018-12-29T00:44:53Z</time>
      </trkpt>
      <trkpt lat="34.647490" lon="-117.216340">
        <ele>968.286</ele>
        <time>2018-12-29T00:45:13Z</time>
      </trkpt>
      <trkpt lat="34.647240" lon="-117.216450">
        <ele>968.064</ele>
        <time>2018-12-29T00:45:33Z</time>
      </trkpt>
      <trkpt lat="34.647150" lon="-117.216490">
        <ele>967.989</ele>
        <time>2018-12-29T00:45:53Z</time>
      </trkpt>
      <trkpt lat="34.646880" lon="-117.216610">
        <ele>967.870</ele>
        <time>2018-12-29T00:46:13Z</time>
      </trkpt>
      <trkpt lat="34.646680" lon="-117.216710">
        <ele>967.765</ele>
        <time>2018-12-29T00:46:33Z</time>
      </trkpt>
      <trkpt lat="34.646460" lon="-117.216820">
        <ele>967.686</ele>
        <time>2018-12-29T00:46:53Z</time>
      </trkpt>
      <trkpt lat="34.646270" lon="-117.216920">
        <ele>967.669</ele>
        <time>2018-12-29T00:47:13Z</time>
      </trkpt>
      <trkpt lat="34.646010" lon="-117.217050">
        <ele>967.879</ele>
        <time>2018-12-29T00:47:33Z</time>
      </trkpt>
      <trkpt lat="34.645750" lon="-117.217200">
        <ele>967.839</ele>
        <time>2018-12-29T00:47:53Z</time>
      </trkpt>
      <trkpt lat="34.645610" lon="-117.217280">
        <ele>967.901</ele>
        <time>2018-12-29T00:48:13Z</time>
      </trkpt>
      <trkpt lat="34.645390" lon="-117.217410">
        <ele>968.321</ele>
        <time>2018-12-29T00:48:33Z</time>
      </trkpt>
      <trkpt lat="34.645180" lon="-117.217540">
        <ele>968.508</ele>
        <time>2018-12-29T00:48:53Z</time>
      </trkpt>
      <trkpt lat="34.644960" lon="-117.217680">
        <ele>969.076</ele>
        <time>2018-12-29T00:49:13Z</time>
      </trkpt>
      <trkpt lat="34.644700" lon="-117.217850">
        <ele>969.524</ele>
        <time>2018-12-29T00:49:33Z</time>
      </trkpt>
      <trkpt lat="34.644510" lon="-117.217980">
        <ele>969.839</ele>
        <time>2018-12-29T00:49:53Z</time>
      </trkpt>
      <trkpt lat="34.644330" lon="-117.218110">
        <ele>970.050</ele>
        <time>2018-12-29T00:50:13Z</time>
      </trkpt>
      <trkpt lat="34.644320" lon="-117.218120">
        <ele>970.015</ele>
        <time>2018-12-29T00:50:33Z</time>
      </trkpt>
      <trkpt lat="34.644130" lon="-117.218250">
        <ele>969.386</ele>
        <time>2018-12-29T00:50:53Z</time>
      </trkpt>
      <trkpt lat="34.643910" lon="-117.218420">
        <ele>968.829</ele>
        <time>2018-12-29T00:51:13Z</time>
      </trkpt>
      <trkpt lat="34.643590" lon="-117.218660">
        <ele>968.289</ele>
        <time>2018-12-29T00:51:33Z</time>
      </trkpt>
      <trkpt lat="34.643340" lon="-117.218850">
        <ele>968.037</ele>
        <time>2018-12-29T00:51:53Z</time>
      </trkpt>
      <trkpt lat="34.643160" lon="-117.218980">
        <ele>967.949</ele>
        <time>2018-12-29T00:52:13Z</time>
      </trkpt>
      <trkpt lat="34.643010" lon="-117.219100">
        <ele>967.813</ele>
        <time>2018-12-29T00:52:33Z</time>
      </trkpt>
      <trkpt lat="34.642790" lon="-117.219260">
        <ele>967.708</ele>
        <time>2018-12-29T00:52:53Z</time>
      </trkpt>
      <trkpt lat="34.642570" lon="-117.219430">
        <ele>967.686</ele>
        <time>2018-12-29T00:53:13Z</time>
      </trkpt>
      <trkpt lat="34.642390" lon="-117.219560">
        <ele>967.554</ele>
        <time>2018-12-29T00:53:33Z</time>
      </trkpt>
      <trkpt lat="34.641990" lon="-117.219860">
        <ele>967.169</ele>
        <time>2018-12-29T00:53:53Z</time>
      </trkpt>
      <trkpt lat="34.641500" lon="-117.220240">
        <ele>966.640</ele>
        <time>2018-12-29T00:54:13Z</time>
      </trkpt>
      <trkpt lat="34.641200" lon="-117.220470">
        <ele>966.355</ele>
        <time>2018-12-29T00:54:33Z</time>
      </trkpt>
      <trkpt lat="34.640840" lon="-117.220740">
        <ele>965.836</ele>
        <time>2018-12-29T00:54:53Z</time>
      </trkpt>
      <trkpt lat="34.640700" lon="-117.220840">
        <ele>965.799</ele>
        <time>2018-12-29T00:55:13Z</time>
      </trkpt>
      <trkpt lat="34.640200" lon="-117.221220">
        <ele>966.059</ele>
        <time>2018-12-29T00:55:33Z</time>
      </trkpt>
      <trkpt lat="34.639890" lon="-117.221460">
        <ele>966.346</ele>
        <time>2018-12-29T00:55:53Z</time>
      </trkpt>
      <trkpt lat="34.639630" lon="-117.221650">
        <ele>966.788</ele>
        <time>2018-12-29T00:56:13Z</time>
      </trkpt>
      <trkpt lat="34.639240" lon="-117.221940">
        <ele>967.316</ele>
        <time>2018-12-29T00:56:33Z</time>
      </trkpt>
      <trkpt lat="34.638950" lon="-117.222160">
        <ele>967.708</ele>
        <time>2018-12-29T00:56:53Z</time>
      </trkpt>
      <trkpt lat="34.638610" lon="-117.222410">
        <ele>967.917</ele>
        <time>2018-12-29T00:57:13Z</time>
      </trkpt>
      <trkpt lat="34.638250" lon="-117.222690">
        <ele>967.955</ele>
        <time>2018-12-29T00:57:33Z</time>
      </trkpt>
      <trkpt lat="34.637800" lon="-117.223030">
        <ele>967.740</ele>
        <time>2018-12-29T00:57:53Z</time>
      </trkpt>
      <trkpt lat="34.637460" lon="-117.223280">
        <ele>967.791</ele>
        <time>2018-12-29T00:58:13Z</time>
      </trkpt>
      <trkpt lat="34.637320" lon="-117.223390">
        <ele>967.746</ele>
        <time>2018-12-29T00:58:33Z</time>
      </trkpt>
      <trkpt lat="34.637160" lon="-117.223510">
        <ele>967.597</ele>
        <time>2018-12-29T00:58:53Z</time>
      </trkpt>
      <trkpt lat="34.636930" lon="-117.223690">
        <ele>967.410</ele>
        <time>2018-12-29T00:59:13Z</time>
      </trkpt>
      <trkpt lat="34.636760" lon="-117.223820">
        <ele>967.890</ele>
        <time>2018-12-29T00:59:33Z</time>
      </trkpt>
      <trkpt lat="34.636580" lon="-117.223960">
        <ele>968.145</ele>
        <time>2018-12-29T00:59:53Z</time>
      </trkpt>
      <trkpt lat="34.636350" lon="-117.224130">
        <ele>967.947</ele>
        <time>2018-12-29T01:00:13Z</time>
      </trkpt>
      <trkpt lat="34.636150" lon="-117.224280">
        <ele>967.711</ele>
        <time>2018-12-29T01:00:33Z</time>
      </trkpt>
      <trkpt lat="34.635880" lon="-117.224480">
        <ele>967.408</ele>
        <time>2018-12-29T01:00:53Z</time>
      </trkpt>
      <trkpt lat="34.635630" lon="-117.224670">
        <ele>967.357</ele>
        <time>2018-12-29T01:01:13Z</time>
      </trkpt>
      <trkpt lat="34.635420" lon="-117.224830">
        <ele>967.345</ele>
        <time>2018-12-29T01:01:33Z</time>
      </trkpt>
      <trkpt lat="34.635100" lon="-117.225070">
        <ele>967.260</ele>
        <time>2018-12-29T01:01:53Z</time>
      </trkpt>
      <trkpt lat="34.634830" lon="-117.225280">
        <ele>967.341</ele>
        <time>2018-12-29T01:02:13Z</time>
      </trkpt>
      <trkpt lat="34.634020" lon="-117.225890">
        <ele>967.766</ele>
        <time>2018-12-29T01:02:33Z</time>
      </trkpt>
      <trkpt lat="34.633540" lon="-117.226250">
        <ele>967.367</ele>
        <time>2018-12-29T01:02:53Z</time>
      </trkpt>
      <trkpt lat="34.632650" lon="-117.226920">
        <ele>967.050</ele>
        <time>2018-12-29T01:03:13Z</time>
      </trkpt>
      <trkpt lat="34.631820" lon="-117.227550">
        <ele>967.840</ele>
        <time>2018-12-29T01:03:33Z</time>
      </trkpt>
      <trkpt lat="34.631220" lon="-117.228000">
        <ele>967.919</ele>
        <time>2018-12-29T01:03:53Z</time>
      </trkpt>
      <trkpt lat="34.630630" lon="-117.228450">
        <ele>968.009</ele>
        <time>2018-12-29T01:04:13Z</time>
      </trkpt>
      <trkpt lat="34.630280" lon="-117.228710">
        <ele>968.819</ele>
        <time>2018-12-29T01:04:33Z</time>
      </trkpt>
      <trkpt lat="34.630120" lon="-117.228840">
        <ele>969.408</ele>
        <time>2018-12-29T01:04:53Z</time>
      </trkpt>
      <trkpt lat="34.629570" lon="-117.229260">
        <ele>969.494</ele>
        <time>2018-12-29T01:05:13Z</time>
      </trkpt>
      <trkpt lat="34.629300" lon="-117.229470">
        <ele>969.742</ele>
        <time>2018-12-29T01:05:33Z</time>
      </trkpt>
      <trkpt lat="34.629020" lon="-117.229690">
        <ele>969.417</ele>
        <time>2018-12-29T01:05:53Z</time>
      </trkpt>
      <trkpt lat="34.628730" lon="-117.229910">
        <ele>969.298</ele>
        <time>2018-12-29T01:06:13Z</time>
      </trkpt>
      <trkpt lat="34.628400" lon="-117.230170">
        <ele>967.493</ele>
        <time>2018-12-29T01:06:33Z</time>
      </trkpt>
      <trkpt lat="34.628180" lon="-117.230340">
        <ele>964.824</ele>
        <time>2018-12-29T01:06:53Z</time>
      </trkpt>
      <trkpt lat="34.627870" lon="-117.230590">
        <ele>965.267</ele>
        <time>2018-12-29T01:07:13Z</time>
      </trkpt>
      <trkpt lat="34.627450" lon="-117.230920">
        <ele>964.817</ele>
        <time>2018-12-29T01:07:33Z</time>
      </trkpt>
      <trkpt lat="34.627200" lon="-117.231110">
        <ele>964.913</ele>
        <time>2018-12-29T01:07:53Z</time>
      </trkpt>
      <trkpt lat="34.627060" lon="-117.231220">
        <ele>965.343</ele>
        <time>2018-12-29T01:08:13Z</time>
      </trkpt>
      <trkpt lat="34.627000" lon="-117.231270">
        <ele>965.407</ele>
        <time>2018-12-29T01:08:33Z</time>
      </trkpt>
      <trkpt lat="34.626700" lon="-117.231500">
        <ele>965.608</ele>
        <time>2018-12-29T01:08:53Z</time>
      </trkpt>
      <trkpt lat="34.626430" lon="-117.231720">
        <ele>965.654</ele>
        <time>2018-12-29T01:09:13Z</time>
      </trkpt>
      <trkpt lat="34.626240" lon="-117.231870">
        <ele>965.622</ele>
        <time>2018-12-29T01:09:33Z</time>
      </trkpt>
      <trkpt lat="34.626020" lon="-117.232050">
        <ele>965.737</ele>
        <time>2018-12-29T01:09:53Z</time>
      </trkpt>
      <trkpt lat="34.625900" lon="-117.232140">
        <ele>965.778</ele>
        <time>2018-12-29T01:10:13Z</time>
      </trkpt>
      <trkpt lat="34.625680" lon="-117.232320">
        <ele>965.763</ele>
        <time>2018-12-29T01:10:33Z</time>
      </trkpt>
      <trkpt lat="34.625420" lon="-117.232520">
        <ele>965.564</ele>
        <time>2018-12-29T01:10:53Z</time>
      </trkpt>
      <trkpt lat="34.625240" lon="-117.232660">
        <ele>965.277</ele>
        <time>2018-12-29T01:11:13Z</time>
      </trkpt>
      <trkpt lat="34.625020" lon="-117.232840">
        <ele>964.927</ele>
        <time>2018-12-29T01:11:33Z</time>
      </trkpt>
      <trkpt lat="34.624460" lon="-117.233280">
        <ele>964.849</ele>
        <time>2018-12-29T01:11:53Z</time>
      </trkpt>
      <trkpt lat="34.624010" lon="-117.233630">
        <ele>965.802</ele>
        <time>2018-12-29T01:12:13Z</time>
      </trkpt>
      <trkpt lat="34.623350" lon="-117.234160">
        <ele>964.522</ele>
        <time>2018-12-29T01:12:33Z</time>
      </trkpt>
      <trkpt lat="34.623010" lon="-117.234430">
        <ele>963.808</ele>
        <time>2018-12-29T01:12:53Z</time>
      </trkpt>
      <trkpt lat="34.622790" lon="-117.234600">
        <ele>963.717</ele>
        <time>2018-12-29T01:13:13Z</time>
      </trkpt>
      <trkpt lat="34.622390" lon="-117.234930">
        <ele>963.255</ele>
        <time>2018-12-29T01:13:33Z</time>
      </trkpt>
      <trkpt lat="34.621450" lon="-117.235660">
        <ele>961.780</ele>
        <time>2018-12-29T01:13:53Z</time>
      </trkpt>
      <trkpt lat="34.620570" lon="-117.236360">
        <ele>959.211</ele>
        <time>2018-12-29T01:14:13Z</time>
      </trkpt>
      <trkpt lat="34.620290" lon="-117.236580">
        <ele>958.556</ele>
        <time>2018-12-29T01:14:33Z</time>
      </trkpt>
      <trkpt lat="34.618080" lon="-117.238330">
        <ele>956.177</ele>
        <time>2018-12-29T01:14:53Z</time>
      </trkpt>
      <trkpt lat="34.617300" lon="-117.238960">
        <ele>956.160</ele>
        <time>2018-12-29T01:15:13Z</time>
      </trkpt>
      <trkpt lat="34.616880" lon="-117.239290">
        <ele>955.730</ele>
        <time>2018-12-29T01:15:33Z</time>
      </trkpt>
      <trkpt lat="34.616470" lon="-117.239620">
        <ele>954.346</ele>
        <time>2018-12-29T01:15:53Z</time>
      </trkpt>
      <trkpt lat="34.616220" lon="-117.239810">
        <ele>953.388</ele>
        <time>2018-12-29T01:16:13Z</time>
      </trkpt>
      <trkpt lat="34.615500" lon="-117.240380">
        <ele>951.516</ele>
        <time>2018-12-29T01:16:33Z</time>
      </trkpt>
      <trkpt lat="34.615090" lon="-117.240710">
        <ele>951.308</ele>
        <time>2018-12-29T01:16:53Z</time>
      </trkpt>
      <trkpt lat="34.614860" lon="-117.240890">
        <ele>951.317</ele>
        <time>2018-12-29T01:17:13Z</time>
      </trkpt>
      <trkpt lat="34.614130" lon="-117.241470">
        <ele>945.465</ele>
        <time>2018-12-29T01:17:33Z</time>
      </trkpt>
      <trkpt lat="34.613950" lon="-117.241610">
        <ele>945.390</ele>
        <time>2018-12-29T01:17:53Z</time>
      </trkpt>
      <trkpt lat="34.613350" lon="-117.242080">
        <ele>943.411</ele>
        <time>2018-12-29T01:18:13Z</time>
      </trkpt>
      <trkpt lat="34.612740" lon="-117.242570">
        <ele>939.796</ele>
        <time>2018-12-29T01:18:33Z</time>
      </trkpt>
      <trkpt lat="34.612390" lon="-117.242850">
        <ele>939.897</ele>
        <time>2018-12-29T01:18:53Z</time>
      </trkpt>
      <trkpt lat="34.612310" lon="-117.242910">
        <ele>939.630</ele>
        <time>2018-12-29T01:19:13Z</time>
      </trkpt>
      <trkpt lat="34.612300" lon="-117.242920">
        <ele>939.690</ele>
        <time>2018-12-29T01:19:33Z</time>
      </trkpt>
      <trkpt lat="34.612250" lon="-117.242960">
        <ele>939.859</ele>
        <time>2018-12-29T01:19:53Z</time>
      </trkpt>
      <trkpt lat="34.611950" lon="-117.243190">
        <ele>939.503</ele>
        <time>2018-12-29T01:20:13Z</time>
      </trkpt>
      <trkpt lat="34.611750" lon="-117.243350">
        <ele>939.523</ele>
        <time>2018-12-29T01:20:33Z</time>
      </trkpt>
      <trkpt lat="34.610420" lon="-117.244400">
        <ele>939.208</ele>
        <time>2018-12-29T01:20:53Z</time>
      </trkpt>
      <trkpt lat="34.610000" lon="-117.244740">
        <ele>939.178</ele>
        <time>2018-12-29T01:21:13Z</time>
      </trkpt>
      <trkpt lat="34.609090" lon="-117.245450">
        <ele>935.116</ele>
        <time>2018-12-29T01:21:33Z</time>
      </trkpt>
      <trkpt lat="34.608520" lon="-117.245910">
        <ele>934.121</ele>
        <time>2018-12-29T01:21:53Z</time>
      </trkpt>
      <trkpt lat="34.608180" lon="-117.246180">
        <ele>933.792</ele>
        <time>2018-12-29T01:22:13Z</time>
      </trkpt>
      <trkpt lat="34.607430" lon="-117.246770">
        <ele>931.327</ele>
        <time>2018-12-29T01:22:33Z</time>
      </trkpt>
      <trkpt lat="34.607120" lon="-117.247010">
        <ele>930.468</ele>
        <time>2018-12-29T01:22:53Z</time>
      </trkpt>
      <trkpt lat="34.606580" lon="-117.247440">
        <ele>928.871</ele>
        <time>2018-12-29T01:23:13Z</time>
      </trkpt>
      <trkpt lat="34.605450" lon="-117.248340">
        <ele>927.231</ele>
        <time>2018-12-29T01:23:33Z</time>
      </trkpt>
      <trkpt lat="34.604120" lon="-117.249390">
        <ele>923.238</ele>
        <time>2018-12-29T01:23:53Z</time>
      </trkpt>
      <trkpt lat="34.603090" lon="-117.250200">
        <ele>921.570</ele>
        <time>2018-12-29T01:24:13Z</time>
      </trkpt>
      <trkpt lat="34.602590" lon="-117.250600">
        <ele>920.117</ele>
        <time>2018-12-29T01:24:33Z</time>
      </trkpt>
      <trkpt lat="34.602180" lon="-117.250920">
        <ele>919.008</ele>
        <time>2018-12-29T01:24:53Z</time>
      </trkpt>
      <trkpt lat="34.601840" lon="-117.251190">
        <ele>918.126</ele>
        <time>2018-12-29T01:25:13Z</time>
      </trkpt>
      <trkpt lat="34.601260" lon="-117.251650">
        <ele>916.794</ele>
        <time>2018-12-29T01:25:33Z</time>
      </trkpt>
      <trkpt lat="34.601120" lon="-117.251760">
        <ele>916.379</ele>
        <time>2018-12-29T01:25:53Z</time>
      </trkpt>
      <trkpt lat="34.600180" lon="-117.252510">
        <ele>914.440</ele>
        <time>2018-12-29T01:26:13Z</time>
      </trkpt>
      <trkpt lat="34.599640" lon="-117.252940">
        <ele>913.225</ele>
        <time>2018-12-29T01:26:33Z</time>
      </trkpt>
      <trkpt lat="34.598910" lon="-117.253530">
        <ele>910.916</ele>
        <time>2018-12-29T01:26:53Z</time>
      </trkpt>
      <trkpt lat="34.598780" lon="-117.253630">
        <ele>910.269</ele>
        <time>2018-12-29T01:27:13Z</time>
      </trkpt>
      <trkpt lat="34.598560" lon="-117.253800">
        <ele>909.449</ele>
        <time>2018-12-29T01:27:33Z</time>
      </trkpt>
      <trkpt lat="34.598410" lon="-117.253920">
        <ele>909.398</ele>
        <time>2018-12-29T01:27:53Z</time>
      </trkpt>
      <trkpt lat="34.598230" lon="-117.254060">
        <ele>909.315</ele>
        <time>2018-12-29T01:28:13Z</time>
      </trkpt>
      <trkpt lat="34.597980" lon="-117.254250">
        <ele>909.626</ele>
        <time>2018-12-29T01:28:33Z</time>
      </trkpt>
      <trkpt lat="34.597680" lon="-117.254490">
        <ele>908.808</ele>
        <time>2018-12-29T01:28:53Z</time>
      </trkpt>
      <trkpt lat="34.596870" lon="-117.255120">
        <ele>906.282</ele>
        <time>2018-12-29T01:29:13Z</time>
      </trkpt>
      <trkpt lat="34.596270" lon="-117.255600">
        <ele>904.770</ele>
        <time>2018-12-29T01:29:33Z</time>
      </trkpt>
      <trkpt lat="34.595920" lon="-117.255870">
        <ele>904.075</ele>
        <time>2018-12-29T01:29:53Z</time>
      </trkpt>
      <trkpt lat="34.594250" lon="-117.257190">
        <ele>898.436</ele>
        <time>2018-12-29T01:30:13Z</time>
      </trkpt>
      <trkpt lat="34.593360" lon="-117.257890">
        <ele>897.531</ele>
        <time>2018-12-29T01:30:33Z</time>
      </trkpt>
      <trkpt lat="34.592890" lon="-117.258250">
        <ele>895.872</ele>
        <time>2018-12-29T01:30:53Z</time>
      </trkpt>
      <trkpt lat="34.592470" lon="-117.258600">
        <ele>890.095</ele>
        <time>2018-12-29T01:31:13Z</time>
      </trkpt>
      <trkpt lat="34.592140" lon="-117.258870">
        <ele>888.835</ele>
        <time>2018-12-29T01:31:33Z</time>
      </trkpt>
      <trkpt lat="34.591790" lon="-117.259140">
        <ele>887.824</ele>
        <time>2018-12-29T01:31:53Z</time>
      </trkpt>
      <trkpt lat="34.590900" lon="-117.259840">
        <ele>883.704</ele>
        <time>2018-12-29T01:32:13Z</time>
      </trkpt>
      <trkpt lat="34.590120" lon="-117.260440">
        <ele>879.114</ele>
        <time>2018-12-29T01:32:33Z</time>
      </trkpt>
      <trkpt lat="34.589320" lon="-117.261060">
        <ele>896.508</ele>
        <time>2018-12-29T01:32:53Z</time>
      </trkpt>
      <trkpt lat="34.588970" lon="-117.261360">
        <ele>890.595</ele>
        <time>2018-12-29T01:33:13Z</time>
      </trkpt>
      <trkpt lat="34.588660" lon="-117.261620">
        <ele>885.833</ele>
        <time>2018-12-29T01:33:33Z</time>
      </trkpt>
      <trkpt lat="34.587850" lon="-117.262310">
        <ele>885.188</ele>
        <time>2018-12-29T01:33:53Z</time>
      </trkpt>
      <trkpt lat="34.587040" lon="-117.263020">
        <ele>886.239</ele>
        <time>2018-12-29T01:34:13Z</time>
      </trkpt>
      <trkpt lat="34.586240" lon="-117.263740">
        <ele>885.564</ele>
        <time>2018-12-29T01:34:33Z</time>
      </trkpt>
      <trkpt lat="34.584840" lon="-117.265020">
        <ele>885.285</ele>
        <time>2018-12-29T01:34:53Z</time>
      </trkpt>
      <trkpt lat="34.581960" lon="-117.267630">
        <ele>885.888</ele>
        <time>2018-12-29T01:35:13Z</time>
      </trkpt>
      <trkpt lat="34.579660" lon="-117.269700">
        <ele>880.458</ele>
        <time>2018-12-29T01:35:33Z</time>
      </trkpt>
      <trkpt lat="34.579020" lon="-117.270270">
        <ele>879.323</ele>
        <time>2018-12-29T01:35:53Z</time>
      </trkpt>
      <trkpt lat="34.578370" lon="-117.270850">
        <ele>879.183</ele>
        <time>2018-12-29T01:36:13Z</time>
      </trkpt>
      <trkpt lat="34.577450" lon="-117.271700">
        <ele>880.011</ele>
        <time>2018-12-29T01:36:33Z</time>
      </trkpt>
      <trkpt lat="34.576130" lon="-117.272890">
        <ele>880.208</ele>
        <time>2018-12-29T01:36:53Z</time>
      </trkpt>
      <trkpt lat="34.575000" lon="-117.273910">
        <ele>879.415</ele>
        <time>2018-12-29T01:37:13Z</time>
      </trkpt>
      <trkpt lat="34.573390" lon="-117.275370">
        <ele>877.363</ele>
        <time>2018-12-29T01:37:33Z</time>
      </trkpt>
      <trkpt lat="34.572370" lon="-117.276300">
        <ele>879.598</ele>
        <time>2018-12-29T01:37:53Z</time>
      </trkpt>
      <trkpt lat="34.571190" lon="-117.277350">
        <ele>876.649</ele>
        <time>2018-12-29T01:38:13Z</time>
      </trkpt>
      <trkpt lat="34.570360" lon="-117.278090">
        <ele>877.794</ele>
        <time>2018-12-29T01:38:33Z</time>
      </trkpt>
      <trkpt lat="34.569190" lon="-117.279120">
        <ele>878.065</ele>
        <time>2018-12-29T01:38:53Z</time>
      </trkpt>
      <trkpt lat="34.568140" lon="-117.280060">
        <ele>879.628</ele>
        <time>2018-12-29T01:39:13Z</time>
      </trkpt>
      <trkpt lat="34.566960" lon="-117.281100">
        <ele>874.868</ele>
        <time>2018-12-29T01:39:33Z</time>
      </trkpt>
      <trkpt lat="34.566310" lon="-117.281670">
        <ele>872.827</ele>
        <time>2018-12-29T01:39:53Z</time>
      </trkpt>
      <trkpt lat="34.565500" lon="-117.282410">
        <ele>868.668</ele>
        <time>2018-12-29T01:40:13Z</time>
      </trkpt>
      <trkpt lat="34.564990" lon="-117.282860">
        <ele>865.914</ele>
        <time>2018-12-29T01:40:33Z</time>
      </trkpt>
      <trkpt lat="34.564480" lon="-117.283330">
        <ele>864.008</ele>
        <time>2018-12-29T01:40:53Z</time>
      </trkpt>
      <trkpt lat="34.564020" lon="-117.283750">
        <ele>862.425</ele>
        <time>2018-12-29T01:41:13Z</time>
      </trkpt>
      <trkpt lat="34.563550" lon="-117.284170">
        <ele>860.823</ele>
        <time>2018-12-29T01:41:33Z</time>
      </trkpt>
      <trkpt lat="34.563210" lon="-117.284460">
        <ele>858.948</ele>
        <time>2018-12-29T01:41:53Z</time>
      </trkpt>
      <trkpt lat="34.562820" lon="-117.284780">
        <ele>856.149</ele>
        <time>2018-12-29T01:42:13Z</time>
      </trkpt>
      <trkpt lat="34.562380" lon="-117.285130">
        <ele>855.274</ele>
        <time>2018-12-29T01:42:33Z</time>
      </trkpt>
      <trkpt lat="34.561800" lon="-117.285530">
        <ele>852.975</ele>
        <time>2018-12-29T01:42:53Z</time>
      </trkpt>
      <trkpt lat="34.561220" lon="-117.285890">
        <ele>850.598</ele>
        <time>2018-12-29T01:43:13Z</time>
      </trkpt>
      <trkpt lat="34.561070" lon="-117.285980">
        <ele>850.018</ele>
        <time>2018-12-29T01:43:33Z</time>
      </trkpt>
      <trkpt lat="34.560880" lon="-117.286090">
        <ele>849.442</ele>
        <time>2018-12-29T01:43:53Z</time>
      </trkpt>
      <trkpt lat="34.560640" lon="-117.286220">
        <ele>849.022</ele>
        <time>2018-12-29T01:44:13Z</time>
      </trkpt>
      <trkpt lat="34.557700" lon="-117.287750">
        <ele>840.114</ele>
        <time>2018-12-29T01:44:33Z</time>
      </trkpt>
      <trkpt lat="34.555470" lon="-117.288910">
        <ele>828.808</ele>
        <time>2018-12-29T01:44:53Z</time>
      </trkpt>
      <trkpt lat="34.554580" lon="-117.289360">
        <ele>824.717</ele>
        <time>2018-12-29T01:45:13Z</time>
      </trkpt>
      <trkpt lat="34.553610" lon="-117.289880">
        <ele>823.425</ele>
        <time>2018-12-29T01:45:33Z</time>
      </trkpt>
      <trkpt lat="34.553140" lon="-117.290120">
        <ele>823.250</ele>
        <time>2018-12-29T01:45:53Z</time>
      </trkpt>
      <trkpt lat="34.552960" lon="-117.290220">
        <ele>823.261</ele>
        <time>2018-12-29T01:46:13Z</time>
      </trkpt>
      <trkpt lat="34.552820" lon="-117.290310">
        <ele>823.276</ele>
        <time>2018-12-29T01:46:33Z</time>
      </trkpt>
      <trkpt lat="34.552620" lon="-117.290440">
        <ele>823.257</ele>
        <time>2018-12-29T01:46:53Z</time>
      </trkpt>
      <trkpt lat="34.552430" lon="-117.290560">
        <ele>823.230</ele>
        <time>2018-12-29T01:47:13Z</time>
      </trkpt>
      <trkpt lat="34.552040" lon="-117.290860">
        <ele>823.030</ele>
        <time>2018-12-29T01:47:33Z</time>
      </trkpt>
      <trkpt lat="34.551800" lon="-117.291060">
        <ele>822.938</ele>
        <time>2018-12-29T01:47:53Z</time>
      </trkpt>
      <trkpt lat="34.551630" lon="-117.291210">
        <ele>822.970</ele>
        <time>2018-12-29T01:48:13Z</time>
      </trkpt>
      <trkpt lat="34.551530" lon="-117.291300">
        <ele>822.917</ele>
        <time>2018-12-29T01:48:33Z</time>
      </trkpt>
      <trkpt lat="34.551380" lon="-117.291450">
        <ele>823.008</ele>
        <time>2018-12-29T01:48:53Z</time>
      </trkpt>
      <trkpt lat="34.551040" lon="-117.291810">
        <ele>823.396</ele>
        <time>2018-12-29T01:49:13Z</time>
      </trkpt>
      <trkpt lat="34.550920" lon="-117.291940">
        <ele>823.564</ele>
        <time>2018-12-29T01:49:33Z</time>
      </trkpt>
      <trkpt lat="34.550780" lon="-117.292100">
        <ele>823.749</ele>
        <time>2018-12-29T01:49:53Z</time>
      </trkpt>
      <trkpt lat="34.550480" lon="-117.292470">
        <ele>823.630</ele>
        <time>2018-12-29T01:50:13Z</time>
      </trkpt>
      <trkpt lat="34.550290" lon="-117.292730">
        <ele>823.755</ele>
        <time>2018-12-29T01:50:33Z</time>
      </trkpt>
      <trkpt lat="34.550160" lon="-117.292910">
        <ele>823.786</ele>
        <time>2018-12-29T01:50:53Z</time>
      </trkpt>
      <trkpt lat="34.549970" lon="-117.293190">
        <ele>823.229</ele>
        <time>2018-12-29T01:51:13Z</time>
      </trkpt>
      <trkpt lat="34.549740" lon="-117.293550">
        <ele>822.829</ele>
        <time>2018-12-29T01:51:33Z</time>
      </trkpt>
      <trkpt lat="34.549490" lon="-117.293970">
        <ele>822.832</ele>
        <time>2018-12-29T01:51:53Z</time>
      </trkpt>
      <trkpt lat="34.548690" lon="-117.295270">
        <ele>823.092</ele>
        <time>2018-12-29T01:52:13Z</time>
      </trkpt>
      <trkpt lat="34.548180" lon="-117.296110">
        <ele>823.511</ele>
        <time>2018-12-29T01:52:33Z</time>
      </trkpt>
      <trkpt lat="34.546760" lon="-117.298440">
        <ele>825.608</ele>
        <time>2018-12-29T01:52:53Z</time>
      </trkpt>
      <trkpt lat="34.546380" lon="-117.299060">
        <ele>826.346</ele>
        <time>2018-12-29T01:53:13Z</time>
      </trkpt>
      <trkpt lat="34.545910" lon="-117.299890">
        <ele>827.124</ele>
        <time>2018-12-29T01:53:33Z</time>
      </trkpt>
      <trkpt lat="34.545760" lon="-117.300140">
        <ele>827.779</ele>
        <time>2018-12-29T01:53:53Z</time>
      </trkpt>
      <trkpt lat="34.545750" lon="-117.300160">
        <ele>827.890</ele>
        <time>2018-12-29T01:54:13Z</time>
      </trkpt>
      <trkpt lat="34.545590" lon="-117.300420">
        <ele>828.135</ele>
        <time>2018-12-29T01:54:33Z</time>
      </trkpt>
      <trkpt lat="34.545410" lon="-117.300700">
        <ele>828.636</ele>
        <time>2018-12-29T01:54:53Z</time>
      </trkpt>
      <trkpt lat="34.545270" lon="-117.300940">
        <ele>828.979</ele>
        <time>2018-12-29T01:55:13Z</time>
      </trkpt>
      <trkpt lat="34.544890" lon="-117.301580">
        <ele>830.039</ele>
        <time>2018-12-29T01:55:33Z</time>
      </trkpt>
      <trkpt lat="34.544570" lon="-117.302070">
        <ele>837.528</ele>
        <time>2018-12-29T01:55:53Z</time>
      </trkpt>
      <trkpt lat="34.543510" lon="-117.303860">
        <ele>843.889</ele>
        <time>2018-12-29T01:56:13Z</time>
      </trkpt>
      <trkpt lat="34.542880" lon="-117.304900">
        <ele>850.817</ele>
        <time>2018-12-29T01:56:33Z</time>
      </trkpt>
      <trkpt lat="34.542680" lon="-117.305260">
        <ele>851.808</ele>
        <time>2018-12-29T01:56:53Z</time>
      </trkpt>
      <trkpt lat="34.541830" lon="-117.306650">
        <ele>859.265</ele>
        <time>2018-12-29T01:57:13Z</time>
      </trkpt>
      <trkpt lat="34.541510" lon="-117.307180">
        <ele>863.123</ele>
        <time>2018-12-29T01:57:33Z</time>
      </trkpt>
      <trkpt lat="34.541010" lon="-117.307990">
        <ele>866.468</ele>
        <time>2018-12-29T01:57:53Z</time>
      </trkpt>
      <trkpt lat="34.540730" lon="-117.308440">
        <ele>869.969</ele>
        <time>2018-12-29T01:58:13Z</time>
      </trkpt>
      <trkpt lat="34.540360" lon="-117.308970">
        <ele>871.964</ele>
        <time>2018-12-29T01:58:33Z</time>
      </trkpt>
      <trkpt lat="34.540170" lon="-117.309220">
        <ele>872.025</ele>
        <time>2018-12-29T01:58:53Z</time>
      </trkpt>
      <trkpt lat="34.539900" lon="-117.309540">
        <ele>875.758</ele>
        <time>2018-12-29T01:59:13Z</time>
      </trkpt>
      <trkpt lat="34.539610" lon="-117.309850">
        <ele>877.318</ele>
        <time>2018-12-29T01:59:33Z</time>
      </trkpt>
      <trkpt lat="34.539410" lon="-117.310050">
        <ele>879.276</ele>
        <time>2018-12-29T01:59:53Z</time>
      </trkpt>
      <trkpt lat="34.539200" lon="-117.310250">
        <ele>881.690</ele>
        <time>2018-12-29T02:00:13Z</time>
      </trkpt>
      <trkpt lat="34.538920" lon="-117.310480">
        <ele>883.419</ele>
        <time>2018-12-29T02:00:33Z</time>
      </trkpt>
      <trkpt lat="34.538750" lon="-117.310620">
        <ele>883.608</ele>
        <time>2018-12-29T02:00:53Z</time>
      </trkpt>
      <trkpt lat="34.538320" lon="-117.310940">
        <ele>884.570</ele>
        <time>2018-12-29T02:01:13Z</time>
      </trkpt>
      <trkpt lat="34.537970" lon="-117.311170">
        <ele>884.388</ele>
        <time>2018-12-29T02:01:33Z</time>
      </trkpt>
      <trkpt lat="34.537720" lon="-117.311320">
        <ele>884.243</ele>
        <time>2018-12-29T02:01:53Z</time>
      </trkpt>
      <trkpt lat="34.537500" lon="-117.311440">
        <ele>884.134</ele>
        <time>2018-12-29T02:02:13Z</time>
      </trkpt>
      <trkpt lat="34.537100" lon="-117.311660">
        <ele>884.349</ele>
        <time>2018-12-29T02:02:33Z</time>
      </trkpt>
      <trkpt lat="34.537020" lon="-117.311700">
        <ele>884.410</ele>
        <time>2018-12-29T02:02:53Z</time>
      </trkpt>
      <trkpt lat="34.536540" lon="-117.311940">
        <ele>884.563</ele>
        <time>2018-12-29T02:03:13Z</time>
      </trkpt>
      <trkpt lat="34.534690" lon="-117.312900">
        <ele>884.753</ele>
        <time>2018-12-29T02:03:33Z</time>
      </trkpt>
      <trkpt lat="34.532310" lon="-117.314150">
        <ele>884.064</ele>
        <time>2018-12-29T02:03:53Z</time>
      </trkpt>
      <trkpt lat="34.531640" lon="-117.314490">
        <ele>884.806</ele>
        <time>2018-12-29T02:04:13Z</time>
      </trkpt>
      <trkpt lat="34.531420" lon="-117.314610">
        <ele>884.916</ele>
        <time>2018-12-29T02:04:33Z</time>
      </trkpt>
      <trkpt lat="34.529100" lon="-117.315810">
        <ele>887.108</ele>
        <time>2018-12-29T02:04:53Z</time>
      </trkpt>
      <trkpt lat="34.528320" lon="-117.316230">
        <ele>888.479</ele>
        <time>2018-12-29T02:05:13Z</time>
      </trkpt>
      <trkpt lat="34.527850" lon="-117.316470">
        <ele>889.847</ele>
        <time>2018-12-29T02:05:33Z</time>
      </trkpt>
      <trkpt lat="34.526510" lon="-117.317160">
        <ele>890.882</ele>
        <time>2018-12-29T02:05:53Z</time>
      </trkpt>
      <trkpt lat="34.526350" lon="-117.317250">
        <ele>890.893</ele>
        <time>2018-12-29T02:06:13Z</time>
      </trkpt>
      <trkpt lat="34.525760" lon="-117.317550">
        <ele>890.498</ele>
        <time>2018-12-29T02:06:33Z</time>
      </trkpt>
      <trkpt lat="34.525280" lon="-117.317800">
        <ele>890.549</ele>
        <time>2018-12-29T02:06:53Z</time>
      </trkpt>
      <trkpt lat="34.524780" lon="-117.318050">
        <ele>891.022</ele>
        <time>2018-12-29T02:07:13Z</time>
      </trkpt>
      <trkpt lat="34.524330" lon="-117.318280">
        <ele>891.312</ele>
        <time>2018-12-29T02:07:33Z</time>
      </trkpt>
      <trkpt lat="34.524020" lon="-117.318430">
        <ele>891.318</ele>
        <time>2018-12-29T02:07:53Z</time>
      </trkpt>
      <trkpt lat="34.523640" lon="-117.318600">
        <ele>891.298</ele>
        <time>2018-12-29T02:08:13Z</time>
      </trkpt>
      <trkpt lat="34.523040" lon="-117.318840">
        <ele>892.017</ele>
        <time>2018-12-29T02:08:33Z</time>
      </trkpt>
      <trkpt lat="34.522540" lon="-117.319020">
        <ele>893.908</ele>
        <time>2018-12-29T02:08:53Z</time>
      </trkpt>
      <trkpt lat="34.522010" lon="-117.319190">
        <ele>895.874</ele>
        <time>2018-12-29T02:09:13Z</time>
      </trkpt>
      <trkpt lat="34.521660" lon="-117.319290">
        <ele>896.482</ele>
        <time>2018-12-29T02:09:33Z</time>
      </trkpt>
      <trkpt lat="34.521130" lon="-117.319430">
        <ele>896.677</ele>
        <time>2018-12-29T02:09:53Z</time>
      </trkpt>
      <trkpt lat="34.520400" lon="-117.319630">
        <ele>896.448</ele>
        <time>2018-12-29T02:10:13Z</time>
      </trkpt>
      <trkpt lat="34.520100" lon="-117.319700">
        <ele>896.033</ele>
        <time>2018-12-29T02:10:33Z</time>
      </trkpt>
      <trkpt lat="34.519320" lon="-117.319910">
        <ele>895.794</ele>
        <time>2018-12-29T02:10:53Z</time>
      </trkpt>
      <trkpt lat="34.518640" lon="-117.320100">
        <ele>896.077</ele>
        <time>2018-12-29T02:11:13Z</time>
      </trkpt>
      <trkpt lat="34.517650" lon="-117.320360">
        <ele>896.737</ele>
        <time>2018-12-29T02:11:33Z</time>
      </trkpt>
      <trkpt lat="34.517020" lon="-117.320530">
        <ele>896.965</ele>
        <time>2018-12-29T02:11:53Z</time>
      </trkpt>
      <trkpt lat="34.514510" lon="-117.321200">
        <ele>898.768</ele>
        <time>2018-12-29T02:12:13Z</time>
      </trkpt>
      <trkpt lat="34.513970" lon="-117.321330">
        <ele>899.214</ele>
        <time>2018-12-29T02:12:33Z</time>
      </trkpt>
      <trkpt lat="34.513550" lon="-117.321440">
        <ele>899.508</ele>
        <time>2018-12-29T02:12:53Z</time>
      </trkpt>
      <trkpt lat="34.513250" lon="-117.321510">
        <ele>899.839</ele>
        <time>2018-12-29T02:13:13Z</time>
      </trkpt>
      <trkpt lat="34.510550" lon="-117.322220">
        <ele>901.747</ele>
        <time>2018-12-29T02:13:33Z</time>
      </trkpt>
      <trkpt lat="34.509580" lon="-117.322470">
        <ele>901.832</ele>
        <time>2018-12-29T02:13:53Z</time>
      </trkpt>
      <trkpt lat="34.509040" lon="-117.322620">
        <ele>902.233</ele>
        <time>2018-12-29T02:14:13Z</time>
      </trkpt>
      <trkpt lat="34.508640" lon="-117.322720">
        <ele>902.398</ele>
        <time>2018-12-29T02:14:33Z</time>
      </trkpt>
      <trkpt lat="34.508390" lon="-117.322790">
        <ele>902.459</ele>
        <time>2018-12-29T02:14:53Z</time>
      </trkpt>
      <trkpt lat="34.508180" lon="-117.322840">
        <ele>902.562</ele>
        <time>2018-12-29T02:15:13Z</time>
      </trkpt>
      <trkpt lat="34.507570" lon="-117.323000">
        <ele>902.632</ele>
        <time>2018-12-29T02:15:33Z</time>
      </trkpt>
      <trkpt lat="34.507270" lon="-117.323080">
        <ele>902.594</ele>
        <time>2018-12-29T02:15:53Z</time>
      </trkpt>
      <trkpt lat="34.506880" lon="-117.323180">
        <ele>902.357</ele>
        <time>2018-12-29T02:16:13Z</time>
      </trkpt>
      <trkpt lat="34.506500" lon="-117.323280">
        <ele>902.222</ele>
        <time>2018-12-29T02:16:33Z</time>
      </trkpt>
      <trkpt lat="34.506250" lon="-117.323350">
        <ele>902.308</ele>
        <time>2018-12-29T02:16:53Z</time>
      </trkpt>
      <trkpt lat="34.505410" lon="-117.323570">
        <ele>902.532</ele>
        <time>2018-12-29T02:17:13Z</time>
      </trkpt>
      <trkpt lat="34.505350" lon="-117.323580">
        <ele>902.640</ele>
        <time>2018-12-29T02:17:33Z</time>
      </trkpt>
      <trkpt lat="34.504850" lon="-117.323740">
        <ele>903.245</ele>
        <time>2018-12-29T02:17:53Z</time>
      </trkpt>
      <trkpt lat="34.504470" lon="-117.323860">
        <ele>904.166</ele>
        <time>2018-12-29T02:18:13Z</time>
      </trkpt>
      <trkpt lat="34.504170" lon="-117.323970">
        <ele>904.871</ele>
        <time>2018-12-29T02:18:33Z</time>
      </trkpt>
      <trkpt lat="34.503940" lon="-117.324070">
        <ele>905.262</ele>
        <time>2018-12-29T02:18:53Z</time>
      </trkpt>
      <trkpt lat="34.503730" lon="-117.324160">
        <ele>905.445</ele>
        <time>2018-12-29T02:19:13Z</time>
      </trkpt>
      <trkpt lat="34.503480" lon="-117.324270">
        <ele>905.925</ele>
        <time>2018-12-29T02:19:33Z</time>
      </trkpt>
      <trkpt lat="34.503220" lon="-117.324400">
        <ele>906.822</ele>
        <time>2018-12-29T02:19:53Z</time>
      </trkpt>
      <trkpt lat="34.502970" lon="-117.324520">
        <ele>907.062</ele>
        <time>2018-12-29T02:20:13Z</time>
      </trkpt>
      <trkpt lat="34.502610" lon="-117.324720">
        <ele>907.708</ele>
        <time>2018-12-29T02:20:33Z</time>
      </trkpt>
      <trkpt lat="34.502340" lon="-117.324880">
        <ele>908.108</ele>
        <time>2018-12-29T02:20:53Z</time>
      </trkpt>
      <trkpt lat="34.501910" lon="-117.325130">
        <ele>908.845</ele>
        <time>2018-12-29T02:21:13Z</time>
      </trkpt>
      <trkpt lat="34.501430" lon="-117.325440">
        <ele>909.463</ele>
        <time>2018-12-29T02:21:33Z</time>
      </trkpt>
      <trkpt lat="34.499630" lon="-117.326560">
        <ele>913.238</ele>
        <time>2018-12-29T02:21:53Z</time>
      </trkpt>
      <trkpt lat="34.497300" lon="-117.328010">
        <ele>916.669</ele>
        <time>2018-12-29T02:22:13Z</time>
      </trkpt>
      <trkpt lat="34.493970" lon="-117.330100">
        <ele>921.994</ele>
        <time>2018-12-29T02:22:33Z</time>
      </trkpt>
      <trkpt lat="34.491890" lon="-117.331410">
        <ele>925.445</ele>
        <time>2018-12-29T02:22:53Z</time>
      </trkpt>
      <trkpt lat="34.490030" lon="-117.332600">
        <ele>927.118</ele>
        <time>2018-12-29T02:23:13Z</time>
      </trkpt>
      <trkpt lat="34.484640" lon="-117.335980">
        <ele>935.898</ele>
        <time>2018-12-29T02:23:33Z</time>
      </trkpt>
      <trkpt lat="34.484490" lon="-117.336080">
        <ele>936.288</ele>
        <time>2018-12-29T02:23:53Z</time>
      </trkpt>
      <trkpt lat="34.483490" lon="-117.336700">
        <ele>939.724</ele>
        <time>2018-12-29T02:24:13Z</time>
      </trkpt>
      <trkpt lat="34.481990" lon="-117.337640">
        <ele>940.726</ele>
        <time>2018-12-29T02:24:33Z</time>
      </trkpt>
      <trkpt lat="34.480400" lon="-117.338620">
        <ele>945.408</ele>
        <time>2018-12-29T02:24:53Z</time>
      </trkpt>
      <trkpt lat="34.480020" lon="-117.338870">
        <ele>945.911</ele>
        <time>2018-12-29T02:25:13Z</time>
      </trkpt>
      <trkpt lat="34.479720" lon="-117.339070">
        <ele>946.319</ele>
        <time>2018-12-29T02:25:33Z</time>
      </trkpt>
      <trkpt lat="34.479280" lon="-117.339380">
        <ele>946.844</ele>
        <time>2018-12-29T02:25:53Z</time>
      </trkpt>
      <trkpt lat="34.479070" lon="-117.339530">
        <ele>946.965</ele>
        <time>2018-12-29T02:26:13Z</time>
      </trkpt>
      <trkpt lat="34.478720" lon="-117.339800">
        <ele>946.980</ele>
        <time>2018-12-29T02:26:33Z</time>
      </trkpt>
      <trkpt lat="34.478260" lon="-117.340160">
        <ele>947.261</ele>
        <time>2018-12-29T02:26:53Z</time>
      </trkpt>
      <trkpt lat="34.477410" lon="-117.340830">
        <ele>950.694</ele>
        <time>2018-12-29T02:27:13Z</time>
      </trkpt>
      <trkpt lat="34.476900" lon="-117.341230">
        <ele>952.054</ele>
        <time>2018-12-29T02:27:33Z</time>
      </trkpt>
      <trkpt lat="34.476430" lon="-117.341600">
        <ele>952.926</ele>
        <time>2018-12-29T02:27:53Z</time>
      </trkpt>
      <trkpt lat="34.476020" lon="-117.341930">
        <ele>953.447</ele>
        <time>2018-12-29T02:28:13Z</time>
      </trkpt>
      <trkpt lat="34.475720" lon="-117.342160">
        <ele>953.811</ele>
        <time>2018-12-29T02:28:33Z</time>
      </trkpt>
      <trkpt lat="34.475440" lon="-117.342380">
        <ele>954.108</ele>
        <time>2018-12-29T02:28:53Z</time>
      </trkpt>
      <trkpt lat="34.475200" lon="-117.342570">
        <ele>954.765</ele>
        <time>2018-12-29T02:29:13Z</time>
      </trkpt>
      <trkpt lat="34.472890" lon="-117.344400">
        <ele>960.343</ele>
        <time>2018-12-29T02:29:33Z</time>
      </trkpt>
      <trkpt lat="34.470960" lon="-117.345910">
        <ele>965.038</ele>
        <time>2018-12-29T02:29:53Z</time>
      </trkpt>
      <trkpt lat="34.470400" lon="-117.346360">
        <ele>966.279</ele>
        <time>2018-12-29T02:30:13Z</time>
      </trkpt>
      <trkpt lat="34.469800" lon="-117.346810">
        <ele>967.444</ele>
        <time>2018-12-29T02:30:33Z</time>
      </trkpt>
      <trkpt lat="34.467830" lon="-117.348350">
        <ele>971.435</ele>
        <time>2018-12-29T02:30:53Z</time>
      </trkpt>
      <trkpt lat="34.467240" lon="-117.348820">
        <ele>972.538</ele>
        <time>2018-12-29T02:31:13Z</time>
      </trkpt>
      <trkpt lat="34.464960" lon="-117.350600">
        <ele>976.318</ele>
        <time>2018-12-29T02:31:33Z</time>
      </trkpt>
      <trkpt lat="34.461990" lon="-117.352920">
        <ele>982.067</ele>
        <time>2018-12-29T02:31:53Z</time>
      </trkpt>
      <trkpt lat="34.460600" lon="-117.354010">
        <ele>985.481</ele>
        <time>2018-12-29T02:32:13Z</time>
      </trkpt>
      <trkpt lat="34.457390" lon="-117.356520">
        <ele>993.219</ele>
        <time>2018-12-29T02:32:33Z</time>
      </trkpt>
      <trkpt lat="34.455920" lon="-117.357670">
        <ele>997.008</ele>
        <time>2018-12-29T02:32:53Z</time>
      </trkpt>
      <trkpt lat="34.451240" lon="-117.361320">
        <ele>1009.179</ele>
        <time>2018-12-29T02:33:13Z</time>
      </trkpt>
      <trkpt lat="34.450530" lon="-117.361880">
        <ele>1010.977</ele>
        <time>2018-12-29T02:33:33Z</time>
      </trkpt>
      <trkpt lat="34.449910" lon="-117.362350">
        <ele>1012.112</ele>
        <time>2018-12-29T02:33:53Z</time>
      </trkpt>
      <trkpt lat="34.448440" lon="-117.363500">
        <ele>1015.613</ele>
        <time>2018-12-29T02:34:13Z</time>
      </trkpt>
      <trkpt lat="34.447450" lon="-117.364280">
        <ele>1017.838</ele>
        <time>2018-12-29T02:34:33Z</time>
      </trkpt>
      <trkpt lat="34.446870" lon="-117.364730">
        <ele>1018.899</ele>
        <time>2018-12-29T02:34:53Z</time>
      </trkpt>
      <trkpt lat="34.443980" lon="-117.367000">
        <ele>1025.972</ele>
        <time>2018-12-29T02:35:13Z</time>
      </trkpt>
      <trkpt lat="34.443470" lon="-117.367400">
        <ele>1027.382</ele>
        <time>2018-12-29T02:35:33Z</time>
      </trkpt>
      <trkpt lat="34.443020" lon="-117.367760">
        <ele>1028.787</ele>
        <time>2018-12-29T02:35:53Z</time>
      </trkpt>
      <trkpt lat="34.442140" lon="-117.368440">
        <ele>1030.642</ele>
        <time>2018-12-29T02:36:13Z</time>
      </trkpt>
      <trkpt lat="34.441480" lon="-117.368970">
        <ele>1032.126</ele>
        <time>2018-12-29T02:36:33Z</time>
      </trkpt>
      <trkpt lat="34.440900" lon="-117.369420">
        <ele>1034.508</ele>
        <time>2018-12-29T02:36:53Z</time>
      </trkpt>
      <trkpt lat="34.440460" lon="-117.369770">
        <ele>1035.931</ele>
        <time>2018-12-29T02:37:13Z</time>
      </trkpt>
      <trkpt lat="34.439810" lon="-117.370270">
        <ele>1037.369</ele>
        <time>2018-12-29T02:37:33Z</time>
      </trkpt>
      <trkpt lat="34.438830" lon="-117.371040">
        <ele>1040.144</ele>
        <time>2018-12-29T02:37:53Z</time>
      </trkpt>
      <trkpt lat="34.437890" lon="-117.371760">
        <ele>1042.215</ele>
        <time>2018-12-29T02:38:13Z</time>
      </trkpt>
      <trkpt lat="34.437220" lon="-117.372300">
        <ele>1043.520</ele>
        <time>2018-12-29T02:38:33Z</time>
      </trkpt>
      <trkpt lat="34.435240" lon="-117.373850">
        <ele>1048.631</ele>
        <time>2018-12-29T02:38:53Z</time>
      </trkpt>
      <trkpt lat="34.434680" lon="-117.374300">
        <ele>1049.334</ele>
        <time>2018-12-29T02:39:13Z</time>
      </trkpt>
      <trkpt lat="34.434140" lon="-117.374720">
        <ele>1050.844</ele>
        <time>2018-12-29T02:39:33Z</time>
      </trkpt>
      <trkpt lat="34.433440" lon="-117.375270">
        <ele>1053.124</ele>
        <time>2018-12-29T02:39:53Z</time>
      </trkpt>
      <trkpt lat="34.432490" lon="-117.376000">
        <ele>1055.404</ele>
        <time>2018-12-29T02:40:13Z</time>
      </trkpt>
      <trkpt lat="34.431940" lon="-117.376430">
        <ele>1056.714</ele>
        <time>2018-12-29T02:40:33Z</time>
      </trkpt>
      <trkpt lat="34.430950" lon="-117.377210">
        <ele>1058.908</ele>
        <time>2018-12-29T02:40:53Z</time>
      </trkpt>
      <trkpt lat="34.430260" lon="-117.377750">
        <ele>1060.625</ele>
        <time>2018-12-29T02:41:13Z</time>
      </trkpt>
      <trkpt lat="34.430120" lon="-117.377850">
        <ele>1061.013</ele>
        <time>2018-12-29T02:41:33Z</time>
      </trkpt>
      <trkpt lat="34.429370" lon="-117.378430">
        <ele>1062.578</ele>
        <time>2018-12-29T02:41:53Z</time>
      </trkpt>
      <trkpt lat="34.428890" lon="-117.378820">
        <ele>1063.789</ele>
        <time>2018-12-29T02:42:13Z</time>
      </trkpt>
      <trkpt lat="34.428270" lon="-117.379310">
        <ele>1065.334</ele>
        <time>2018-12-29T02:42:33Z</time>
      </trkpt>
      <trkpt lat="34.427300" lon="-117.380080">
        <ele>1067.645</ele>
        <time>2018-12-29T02:42:53Z</time>
      </trkpt>
      <trkpt lat="34.426840" lon="-117.380420">
        <ele>1068.778</ele>
        <time>2018-12-29T02:43:13Z</time>
      </trkpt>
      <trkpt lat="34.426780" lon="-117.380470">
        <ele>1068.888</ele>
        <time>2018-12-29T02:43:33Z</time>
      </trkpt>
      <trkpt lat="34.426730" lon="-117.380510">
        <ele>1068.932</ele>
        <time>2018-12-29T02:43:53Z</time>
      </trkpt>
      <trkpt lat="34.426660" lon="-117.380560">
        <ele>1069.192</ele>
        <time>2018-12-29T02:44:13Z</time>
      </trkpt>
      <trkpt lat="34.426500" lon="-117.380720">
        <ele>1069.511</ele>
        <time>2018-12-29T02:44:33Z</time>
      </trkpt>
      <trkpt lat="34.426030" lon="-117.381070">
        <ele>1070.508</ele>
        <time>2018-12-29T02:44:53Z</time>
      </trkpt>
      <trkpt lat="34.425860" lon="-117.381200">
        <ele>1070.976</ele>
        <time>2018-12-29T02:45:13Z</time>
      </trkpt>
      <trkpt lat="34.425250" lon="-117.381670">
        <ele>1072.364</ele>
        <time>2018-12-29T02:45:33Z</time>
      </trkpt>
      <trkpt lat="34.425150" lon="-117.381740">
        <ele>1072.549</ele>
        <time>2018-12-29T02:45:53Z</time>
      </trkpt>
      <trkpt lat="34.424870" lon="-117.381960">
        <ele>1073.310</ele>
        <time>2018-12-29T02:46:13Z</time>
      </trkpt>
      <trkpt lat="34.424700" lon="-117.382090">
        <ele>1073.755</ele>
        <time>2018-12-29T02:46:33Z</time>
      </trkpt>
      <trkpt lat="34.423180" lon="-117.383290">
        <ele>1077.876</ele>
        <time>2018-12-29T02:46:53Z</time>
      </trkpt>
      <trkpt lat="34.422540" lon="-117.383790">
        <ele>1079.979</ele>
        <time>2018-12-29T02:47:13Z</time>
      </trkpt>
      <trkpt lat="34.422510" lon="-117.383810">
        <ele>1079.919</ele>
        <time>2018-12-29T02:47:33Z</time>
      </trkpt>
      <trkpt lat="34.421990" lon="-117.384210">
        <ele>1081.128</ele>
        <time>2018-12-29T02:47:53Z</time>
      </trkpt>
      <trkpt lat="34.421550" lon="-117.384560">
        <ele>1082.389</ele>
        <time>2018-12-29T02:48:13Z</time>
      </trkpt>
      <trkpt lat="34.421430" lon="-117.384650">
        <ele>1082.617</ele>
        <time>2018-12-29T02:48:33Z</time>
      </trkpt>
      <trkpt lat="34.420570" lon="-117.385320">
        <ele>1085.408</ele>
        <time>2018-12-29T02:48:53Z</time>
      </trkpt>
      <trkpt lat="34.418760" lon="-117.386740">
        <ele>1090.195</ele>
        <time>2018-12-29T02:49:13Z</time>
      </trkpt>
      <trkpt lat="34.416540" lon="-117.388470">
        <ele>1096.613</ele>
        <time>2018-12-29T02:49:33Z</time>
      </trkpt>
      <trkpt lat="34.414890" lon="-117.389750">
        <ele>1100.848</ele>
        <time>2018-12-29T02:49:53Z</time>
      </trkpt>
      <trkpt lat="34.414130" lon="-117.390350">
        <ele>1102.999</ele>
        <time>2018-12-29T02:50:13Z</time>
      </trkpt>
      <trkpt lat="34.413990" lon="-117.390470">
        <ele>1103.464</ele>
        <time>2018-12-29T02:50:33Z</time>
      </trkpt>
      <trkpt lat="34.412580" lon="-117.391560">
        <ele>1107.175</ele>
        <time>2018-12-29T02:50:53Z</time>
      </trkpt>
      <trkpt lat="34.412180" lon="-117.391870">
        <ele>1108.478</ele>
        <time>2018-12-29T02:51:13Z</time>
      </trkpt>
      <trkpt lat="34.412000" lon="-117.392010">
        <ele>1109.048</ele>
        <time>2018-12-29T02:51:33Z</time>
      </trkpt>
      <trkpt lat="34.411280" lon="-117.392570">
        <ele>1110.986</ele>
        <time>2018-12-29T02:51:53Z</time>
      </trkpt>
      <trkpt lat="34.410600" lon="-117.393110">
        <ele>1112.760</ele>
        <time>2018-12-29T02:52:13Z</time>
      </trkpt>
      <trkpt lat="34.409840" lon="-117.393710">
        <ele>1114.526</ele>
        <time>2018-12-29T02:52:33Z</time>
      </trkpt>
      <trkpt lat="34.409580" lon="-117.393920">
        <ele>1115.208</ele>
        <time>2018-12-29T02:52:53Z</time>
      </trkpt>
      <trkpt lat="34.406270" lon="-117.396480">
        <ele>1123.491</ele>
        <time>2018-12-29T02:53:13Z</time>
      </trkpt>
      <trkpt lat="34.406140" lon="-117.396580">
        <ele>1123.769</ele>
        <time>2018-12-29T02:53:33Z</time>
      </trkpt>
      <trkpt lat="34.405690" lon="-117.396950">
        <ele>1124.724</ele>
        <time>2018-12-29T02:53:53Z</time>
      </trkpt>
      <trkpt lat="34.405230" lon="-117.397310">
        <ele>1125.835</ele>
        <time>2018-12-29T02:54:13Z</time>
      </trkpt>
      <trkpt lat="34.404230" lon="-117.398090">
        <ele>1128.290</ele>
        <time>2018-12-29T02:54:33Z</time>
      </trkpt>
      <trkpt lat="34.402820" lon="-117.399190">
        <ele>1131.541</ele>
        <time>2018-12-29T02:54:53Z</time>
      </trkpt>
      <trkpt lat="34.400360" lon="-117.401100">
        <ele>1138.634</ele>
        <time>2018-12-29T02:55:13Z</time>
      </trkpt>
      <trkpt lat="34.400210" lon="-117.401220">
        <ele>1139.214</ele>
        <time>2018-12-29T02:55:33Z</time>
      </trkpt>
      <trkpt lat="34.399440" lon="-117.401810">
        <ele>1141.478</ele>
        <time>2018-12-29T02:55:53Z</time>
      </trkpt>
      <trkpt lat="34.398560" lon="-117.402500">
        <ele>1143.433</ele>
        <time>2018-12-29T02:56:13Z</time>
      </trkpt>
      <trkpt lat="34.398150" lon="-117.402820">
        <ele>1144.326</ele>
        <time>2018-12-29T02:56:33Z</time>
      </trkpt>
      <trkpt lat="34.397970" lon="-117.402960">
        <ele>1144.808</ele>
        <time>2018-12-29T02:56:53Z</time>
      </trkpt>
      <trkpt lat="34.397290" lon="-117.403510">
        <ele>1146.740</ele>
        <time>2018-12-29T02:57:13Z</time>
      </trkpt>
      <trkpt lat="34.395930" lon="-117.404570">
        <ele>1148.548</ele>
        <time>2018-12-29T02:57:33Z</time>
      </trkpt>
      <trkpt lat="34.395440" lon="-117.404970">
        <ele>1149.053</ele>
        <time>2018-12-29T02:57:53Z</time>
      </trkpt>
      <trkpt lat="34.394900" lon="-117.405440">
        <ele>1150.444</ele>
        <time>2018-12-29T02:58:13Z</time>
      </trkpt>
      <trkpt lat="34.394400" lon="-117.405920">
        <ele>1152.679</ele>
        <time>2018-12-29T02:58:33Z</time>
      </trkpt>
      <trkpt lat="34.393880" lon="-117.406430">
        <ele>1153.980</ele>
        <time>2018-12-29T02:58:53Z</time>
      </trkpt>
      <trkpt lat="34.392950" lon="-117.407340">
        <ele>1156.953</ele>
        <time>2018-12-29T02:59:13Z</time>
      </trkpt>
      <trkpt lat="34.392080" lon="-117.408130">
        <ele>1160.253</ele>
        <time>2018-12-29T02:59:33Z</time>
      </trkpt>
      <trkpt lat="34.391720" lon="-117.408440">
        <ele>1161.073</ele>
        <time>2018-12-29T02:59:53Z</time>
      </trkpt>
      <trkpt lat="34.391350" lon="-117.408740">
        <ele>1162.285</ele>
        <time>2018-12-29T03:00:13Z</time>
      </trkpt>
      <trkpt lat="34.386610" lon="-117.412560">
        <ele>1174.913</ele>
        <time>2018-12-29T03:00:33Z</time>
      </trkpt>
      <trkpt lat="34.381960" lon="-117.416360">
        <ele>1187.908</ele>
        <time>2018-12-29T03:00:53Z</time>
      </trkpt>
      <trkpt lat="34.380200" lon="-117.417780">
        <ele>1195.180</ele>
        <time>2018-12-29T03:01:13Z</time>
      </trkpt>
      <trkpt lat="34.379950" lon="-117.417980">
        <ele>1195.868</ele>
        <time>2018-12-29T03:01:33Z</time>
      </trkpt>
      <trkpt lat="34.378840" lon="-117.418890">
        <ele>1199.043</ele>
        <time>2018-12-29T03:01:53Z</time>
      </trkpt>
      <trkpt lat="34.377090" lon="-117.420290">
        <ele>1204.654</ele>
        <time>2018-12-29T03:02:13Z</time>
      </trkpt>
      <trkpt lat="34.375990" lon="-117.421170">
        <ele>1208.759</ele>
        <time>2018-12-29T03:02:33Z</time>
      </trkpt>
      <trkpt lat="34.375310" lon="-117.421720">
        <ele>1211.140</ele>
        <time>2018-12-29T03:02:53Z</time>
      </trkpt>
      <trkpt lat="34.374480" lon="-117.422410">
        <ele>1212.563</ele>
        <time>2018-12-29T03:03:13Z</time>
      </trkpt>
      <trkpt lat="34.374100" lon="-117.422730">
        <ele>1213.073</ele>
        <time>2018-12-29T03:03:33Z</time>
      </trkpt>
      <trkpt lat="34.374010" lon="-117.422810">
        <ele>1213.296</ele>
        <time>2018-12-29T03:03:53Z</time>
      </trkpt>
      <trkpt lat="34.373700" lon="-117.423090">
        <ele>1213.631</ele>
        <time>2018-12-29T03:04:13Z</time>
      </trkpt>
      <trkpt lat="34.372960" lon="-117.423750">
        <ele>1218.324</ele>
        <time>2018-12-29T03:04:33Z</time>
      </trkpt>
      <trkpt lat="34.370840" lon="-117.425670">
        <ele>1225.508</ele>
        <time>2018-12-29T03:04:53Z</time>
      </trkpt>
      <trkpt lat="34.367730" lon="-117.428520">
        <ele>1233.882</ele>
        <time>2018-12-29T03:05:13Z</time>
      </trkpt>
      <trkpt lat="34.365150" lon="-117.430900">
        <ele>1245.380</ele>
        <time>2018-12-29T03:05:33Z</time>
      </trkpt>
      <trkpt lat="34.364910" lon="-117.431110">
        <ele>1245.415</ele>
        <time>2018-12-29T03:05:53Z</time>
      </trkpt>
      <trkpt lat="34.364530" lon="-117.431460">
        <ele>1245.216</ele>
        <time>2018-12-29T03:06:13Z</time>
      </trkpt>
      <trkpt lat="34.362450" lon="-117.433360">
        <ele>1243.871</ele>
        <time>2018-12-29T03:06:33Z</time>
      </trkpt>
      <trkpt lat="34.362330" lon="-117.433460">
        <ele>1243.982</ele>
        <time>2018-12-29T03:06:53Z</time>
      </trkpt>
      <trkpt lat="34.362330" lon="-117.433470">
        <ele>1244.085</ele>
        <time>2018-12-29T03:07:13Z</time>
      </trkpt>
      <trkpt lat="34.361720" lon="-117.434020">
        <ele>1246.265</ele>
        <time>2018-12-29T03:07:33Z</time>
      </trkpt>
      <trkpt lat="34.361190" lon="-117.434520">
        <ele>1254.953</ele>
        <time>2018-12-29T03:07:53Z</time>
      </trkpt>
      <trkpt lat="34.360850" lon="-117.434800">
        <ele>1256.404</ele>
        <time>2018-12-29T03:08:13Z</time>
      </trkpt>
      <trkpt lat="34.360210" lon="-117.435350">
        <ele>1257.414</ele>
        <time>2018-12-29T03:08:33Z</time>
      </trkpt>
      <trkpt lat="34.359080" lon="-117.436250">
        <ele>1267.408</ele>
        <time>2018-12-29T03:08:53Z</time>
      </trkpt>
      <trkpt lat="34.357530" lon="-117.437400">
        <ele>1263.858</ele>
        <time>2018-12-29T03:09:13Z</time>
      </trkpt>
      <trkpt lat="34.356330" lon="-117.438260">
        <ele>1271.696</ele>
        <time>2018-12-29T03:09:33Z</time>
      </trkpt>
      <trkpt lat="34.355450" lon="-117.438920">
        <ele>1273.631</ele>
        <time>2018-12-29T03:09:53Z</time>
      </trkpt>
      <trkpt lat="34.354920" lon="-117.439290">
        <ele>1274.662</ele>
        <time>2018-12-29T03:10:13Z</time>
      </trkpt>
      <trkpt lat="34.354550" lon="-117.439570">
        <ele>1272.067</ele>
        <time>2018-12-29T03:10:33Z</time>
      </trkpt>
      <trkpt lat="34.354160" lon="-117.439900">
        <ele>1273.658</ele>
        <time>2018-12-29T03:10:53Z</time>
      </trkpt>
      <trkpt lat="34.353550" lon="-117.440470">
        <ele>1276.731</ele>
        <time>2018-12-29T03:11:13Z</time>
      </trkpt>
      <trkpt lat="34.352930" lon="-117.441160">
        <ele>1284.741</ele>
        <time>2018-12-29T03:11:33Z</time>
      </trkpt>
      <trkpt lat="34.352650" lon="-117.441490">
        <ele>1283.633</ele>
        <time>2018-12-29T03:11:53Z</time>
      </trkpt>
      <trkpt lat="34.352410" lon="-117.441790">
        <ele>1285.823</ele>
        <time>2018-12-29T03:12:13Z</time>
      </trkpt>
      <trkpt lat="34.352080" lon="-117.442270">
        <ele>1287.715</ele>
        <time>2018-12-29T03:12:33Z</time>
      </trkpt>
      <trkpt lat="34.351760" lon="-117.442770">
        <ele>1286.608</ele>
        <time>2018-12-29T03:12:53Z</time>
      </trkpt>
      <trkpt lat="34.351470" lon="-117.443280">
        <ele>1290.146</ele>
        <time>2018-12-29T03:13:13Z</time>
      </trkpt>
      <trkpt lat="34.351180" lon="-117.443800">
        <ele>1291.864</ele>
        <time>2018-12-29T03:13:33Z</time>
      </trkpt>
      <trkpt lat="34.350350" lon="-117.445350">
        <ele>1300.279</ele>
        <time>2018-12-29T03:13:53Z</time>
      </trkpt>
      <trkpt lat="34.350170" lon="-117.445640">
        <ele>1301.090</ele>
        <time>2018-12-29T03:14:13Z</time>
      </trkpt>
      <trkpt lat="34.350010" lon="-117.445880">
        <ele>1300.925</ele>
        <time>2018-12-29T03:14:33Z</time>
      </trkpt>
      <trkpt lat="34.349610" lon="-117.446410">
        <ele>1303.736</ele>
        <time>2018-12-29T03:14:53Z</time>
      </trkpt>
      <trkpt lat="34.349350" lon="-117.446720">
        <ele>1305.999</ele>
        <time>2018-12-29T03:15:13Z</time>
      </trkpt>
      <trkpt lat="34.348780" lon="-117.447360">
        <ele>1306.999</ele>
        <time>2018-12-29T03:15:33Z</time>
      </trkpt>
      <trkpt lat="34.348160" lon="-117.448020">
        <ele>1306.868</ele>
        <time>2018-12-29T03:15:53Z</time>
      </trkpt>
      <trkpt lat="34.347550" lon="-117.448720">
        <ele>1285.242</ele>
        <time>2018-12-29T03:16:13Z</time>
      </trkpt>
      <trkpt lat="34.347170" lon="-117.449140">
        <ele>1285.226</ele>
        <time>2018-12-29T03:16:33Z</time>
      </trkpt>
      <trkpt lat="34.346860" lon="-117.449500">
        <ele>1293.808</ele>
        <time>2018-12-29T03:16:53Z</time>
      </trkpt>
      <trkpt lat="34.346590" lon="-117.449870">
        <ele>1299.139</ele>
        <time>2018-12-29T03:17:13Z</time>
      </trkpt>
      <trkpt lat="34.346380" lon="-117.450180">
        <ele>1303.227</ele>
        <time>2018-12-29T03:17:33Z</time>
      </trkpt>
      <trkpt lat="34.346140" lon="-117.450580">
        <ele>1301.482</ele>
        <time>2018-12-29T03:17:53Z</time>
      </trkpt>
      <trkpt lat="34.345960" lon="-117.450930">
        <ele>1291.573</ele>
        <time>2018-12-29T03:18:13Z</time>
      </trkpt>
      <trkpt lat="34.345540" lon="-117.451880">
        <ele>1291.748</ele>
        <time>2018-12-29T03:18:33Z</time>
      </trkpt>
      <trkpt lat="34.345440" lon="-117.452140">
        <ele>1291.279</ele>
        <time>2018-12-29T03:18:53Z</time>
      </trkpt>
      <trkpt lat="34.345390" lon="-117.452300">
        <ele>1290.652</ele>
        <time>2018-12-29T03:19:13Z</time>
      </trkpt>
      <trkpt lat="34.345240" lon="-117.452740">
        <ele>1287.272</ele>
        <time>2018-12-29T03:19:33Z</time>
      </trkpt>
      <trkpt lat="34.345150" lon="-117.453060">
        <ele>1283.167</ele>
        <time>2018-12-29T03:19:53Z</time>
      </trkpt>
      <trkpt lat="34.345080" lon="-117.453380">
        <ele>1277.581</ele>
        <time>2018-12-29T03:20:13Z</time>
      </trkpt>
      <trkpt lat="34.344920" lon="-117.454030">
        <ele>1273.419</ele>
        <time>2018-12-29T03:20:33Z</time>
      </trkpt>
      <trkpt lat="34.344610" lon="-117.455460">
        <ele>1267.508</ele>
        <time>2018-12-29T03:20:53Z</time>
      </trkpt>
      <trkpt lat="34.344580" lon="-117.455580">
        <ele>1268.689</ele>
        <time>2018-12-29T03:21:13Z</time>
      </trkpt>
      <trkpt lat="34.344290" lon="-117.456870">
        <ele>1260.757</ele>
        <time>2018-12-29T03:21:33Z</time>
      </trkpt>
      <trkpt lat="34.344210" lon="-117.457310">
        <ele>1254.522</ele>
        <time>2018-12-29T03:21:53Z</time>
      </trkpt>
      <trkpt lat="34.344120" lon="-117.457850">
        <ele>1238.613</ele>
        <time>2018-12-29T03:22:13Z</time>
      </trkpt>
      <trkpt lat="34.344030" lon="-117.458500">
        <ele>1240.498</ele>
        <time>2018-12-29T03:22:33Z</time>
      </trkpt>
      <trkpt lat="34.343990" lon="-117.458930">
        <ele>1248.239</ele>
        <time>2018-12-29T03:22:53Z</time>
      </trkpt>
      <trkpt lat="34.343970" lon="-117.459360">
        <ele>1255.232</ele>
        <time>2018-12-29T03:23:13Z</time>
      </trkpt>
      <trkpt lat="34.343960" lon="-117.459750">
        <ele>1254.052</ele>
        <time>2018-12-29T03:23:33Z</time>
      </trkpt>
      <trkpt lat="34.343960" lon="-117.460220">
        <ele>1261.041</ele>
        <time>2018-12-29T03:23:53Z</time>
      </trkpt>
      <trkpt lat="34.343990" lon="-117.460570">
        <ele>1270.081</ele>
        <time>2018-12-29T03:24:13Z</time>
      </trkpt>
      <trkpt lat="34.344020" lon="-117.460880">
        <ele>1278.909</ele>
        <time>2018-12-29T03:24:33Z</time>
      </trkpt>
      <trkpt lat="34.344060" lon="-117.461210">
        <ele>1273.408</ele>
        <time>2018-12-29T03:24:53Z</time>
      </trkpt>
      <trkpt lat="34.344140" lon="-117.461610">
        <ele>1256.247</ele>
        <time>2018-12-29T03:25:13Z</time>
      </trkpt>
      <trkpt lat="34.344230" lon="-117.462190">
        <ele>1257.995</ele>
        <time>2018-12-29T03:25:33Z</time>
      </trkpt>
      <trkpt lat="34.344300" lon="-117.462530">
        <ele>1268.550</ele>
        <time>2018-12-29T03:25:53Z</time>
      </trkpt>
      <trkpt lat="34.344370" lon="-117.462790">
        <ele>1278.271</ele>
        <time>2018-12-29T03:26:13Z</time>
      </trkpt>
      <trkpt lat="34.344440" lon="-117.463060">
        <ele>1285.056</ele>
        <time>2018-12-29T03:26:33Z</time>
      </trkpt>
      <trkpt lat="34.344530" lon="-117.463330">
        <ele>1284.267</ele>
        <time>2018-12-29T03:26:53Z</time>
      </trkpt>
      <trkpt lat="34.344630" lon="-117.463600">
        <ele>1274.480</ele>
        <time>2018-12-29T03:27:13Z</time>
      </trkpt>
      <trkpt lat="34.344820" lon="-117.464030">
        <ele>1255.010</ele>
        <time>2018-12-29T03:27:33Z</time>
      </trkpt>
      <trkpt lat="34.344970" lon="-117.464350">
        <ele>1242.783</ele>
        <time>2018-12-29T03:27:53Z</time>
      </trkpt>
      <trkpt lat="34.345130" lon="-117.464680">
        <ele>1234.825</ele>
        <time>2018-12-29T03:28:13Z</time>
      </trkpt>
      <trkpt lat="34.345300" lon="-117.465000">
        <ele>1232.517</ele>
        <time>2018-12-29T03:28:33Z</time>
      </trkpt>
      <trkpt lat="34.345460" lon="-117.465280">
        <ele>1229.408</ele>
        <time>2018-12-29T03:28:53Z</time>
      </trkpt>
      <trkpt lat="34.345770" lon="-117.465790">
        <ele>1222.741</ele>
        <time>2018-12-29T03:29:13Z</time>
      </trkpt>
      <trkpt lat="34.345970" lon="-117.466160">
        <ele>1218.669</ele>
        <time>2018-12-29T03:29:33Z</time>
      </trkpt>
      <trkpt lat="34.346130" lon="-117.466440">
        <ele>1214.764</ele>
        <time>2018-12-29T03:29:53Z</time>
      </trkpt>
      <trkpt lat="34.346310" lon="-117.466740">
        <ele>1210.495</ele>
        <time>2018-12-29T03:30:13Z</time>
      </trkpt>
      <trkpt lat="34.346430" lon="-117.466950">
        <ele>1207.550</ele>
        <time>2018-12-29T03:30:33Z</time>
      </trkpt>
      <trkpt lat="34.346570" lon="-117.467190">
        <ele>1204.551</ele>
        <time>2018-12-29T03:30:53Z</time>
      </trkpt>
      <trkpt lat="34.346700" lon="-117.467460">
        <ele>1201.794</ele>
        <time>2018-12-29T03:31:13Z</time>
      </trkpt>
      <trkpt lat="34.346830" lon="-117.467720">
        <ele>1200.344</ele>
        <time>2018-12-29T03:31:33Z</time>
      </trkpt>
      <trkpt lat="34.346970" lon="-117.468040">
        <ele>1198.026</ele>
        <time>2018-12-29T03:31:53Z</time>
      </trkpt>
      <trkpt lat="34.347060" lon="-117.468260">
        <ele>1196.647</ele>
        <time>2018-12-29T03:32:13Z</time>
      </trkpt>
      <trkpt lat="34.347140" lon="-117.468460">
        <ele>1195.911</ele>
        <time>2018-12-29T03:32:33Z</time>
      </trkpt>
      <trkpt lat="34.347230" lon="-117.468740">
        <ele>1194.908</ele>
        <time>2018-12-29T03:32:53Z</time>
      </trkpt>
      <trkpt lat="34.347330" lon="-117.469030">
        <ele>1193.715</ele>
        <time>2018-12-29T03:33:13Z</time>
      </trkpt>
      <trkpt lat="34.347430" lon="-117.469360">
        <ele>1192.413</ele>
        <time>2018-12-29T03:33:33Z</time>
      </trkpt>
      <trkpt lat="34.347510" lon="-117.469700">
        <ele>1191.258</ele>
        <time>2018-12-29T03:33:53Z</time>
      </trkpt>
      <trkpt lat="34.347590" lon="-117.470040">
        <ele>1190.069</ele>
        <time>2018-12-29T03:34:13Z</time>
      </trkpt>
      <trkpt lat="34.347640" lon="-117.470310">
        <ele>1188.634</ele>
        <time>2018-12-29T03:34:33Z</time>
      </trkpt>
      <trkpt lat="34.347690" lon="-117.470580">
        <ele>1187.285</ele>
        <time>2018-12-29T03:34:53Z</time>
      </trkpt>
      <trkpt lat="34.347730" lon="-117.470860">
        <ele>1185.458</ele>
        <time>2018-12-29T03:35:13Z</time>
      </trkpt>
      <trkpt lat="34.347780" lon="-117.471170">
        <ele>1183.428</ele>
        <time>2018-12-29T03:35:33Z</time>
      </trkpt>
      <trkpt lat="34.347810" lon="-117.471500">
        <ele>1181.043</ele>
        <time>2018-12-29T03:35:53Z</time>
      </trkpt>
      <trkpt lat="34.347840" lon="-117.471810">
        <ele>1178.464</ele>
        <time>2018-12-29T03:36:13Z</time>
      </trkpt>
      <trkpt lat="34.347860" lon="-117.472140">
        <ele>1175.710</ele>
        <time>2018-12-29T03:36:33Z</time>
      </trkpt>
      <trkpt lat="34.347860" lon="-117.472420">
        <ele>1173.008</ele>
        <time>2018-12-29T03:36:53Z</time>
      </trkpt>
      <trkpt lat="34.347860" lon="-117.472780">
        <ele>1170.117</ele>
        <time>2018-12-29T03:37:13Z</time>
      </trkpt>
      <trkpt lat="34.347850" lon="-117.473060">
        <ele>1168.795</ele>
        <time>2018-12-29T03:37:33Z</time>
      </trkpt>
      <trkpt lat="34.347840" lon="-117.473370">
        <ele>1167.570</ele>
        <time>2018-12-29T03:37:53Z</time>
      </trkpt>
      <trkpt lat="34.347810" lon="-117.473660">
        <ele>1165.531</ele>
        <time>2018-12-29T03:38:13Z</time>
      </trkpt>
      <trkpt lat="34.347780" lon="-117.473970">
        <ele>1163.276</ele>
        <time>2018-12-29T03:38:33Z</time>
      </trkpt>
      <trkpt lat="34.347730" lon="-117.474350">
        <ele>1161.717</ele>
        <time>2018-12-29T03:38:53Z</time>
      </trkpt>
      <trkpt lat="34.347650" lon="-117.474770">
        <ele>1161.510</ele>
        <time>2018-12-29T03:39:13Z</time>
      </trkpt>
      <trkpt lat="34.347600" lon="-117.475040">
        <ele>1161.240</ele>
        <time>2018-12-29T03:39:33Z</time>
      </trkpt>
      <trkpt lat="34.347520" lon="-117.475370">
        <ele>1160.171</ele>
        <time>2018-12-29T03:39:53Z</time>
      </trkpt>
      <trkpt lat="34.347430" lon="-117.475690">
        <ele>1158.741</ele>
        <time>2018-12-29T03:40:13Z</time>
      </trkpt>
      <trkpt lat="34.347340" lon="-117.475990">
        <ele>1157.315</ele>
        <time>2018-12-29T03:40:33Z</time>
      </trkpt>
      <trkpt lat="34.347270" lon="-117.476220">
        <ele>1156.308</ele>
        <time>2018-12-29T03:40:53Z</time>
      </trkpt>
      <trkpt lat="34.347190" lon="-117.476460">
        <ele>1155.170</ele>
        <time>2018-12-29T03:41:13Z</time>
      </trkpt>
      <trkpt lat="34.347010" lon="-117.476920">
        <ele>1153.158</ele>
        <time>2018-12-29T03:41:33Z</time>
      </trkpt>
      <trkpt lat="34.346820" lon="-117.477370">
        <ele>1151.973</ele>
        <time>2018-12-29T03:41:53Z</time>
      </trkpt>
      <trkpt lat="34.346690" lon="-117.477640">
        <ele>1151.454</ele>
        <time>2018-12-29T03:42:13Z</time>
      </trkpt>
      <trkpt lat="34.346560" lon="-117.477880">
        <ele>1150.689</ele>
        <time>2018-12-29T03:42:33Z</time>
      </trkpt>
      <trkpt lat="34.346430" lon="-117.478120">
        <ele>1149.480</ele>
        <time>2018-12-29T03:42:53Z</time>
      </trkpt>
      <trkpt lat="34.346280" lon="-117.478380">
        <ele>1147.633</ele>
        <time>2018-12-29T03:43:13Z</time>
      </trkpt>
      <trkpt lat="34.346110" lon="-117.478660">
        <ele>1146.713</ele>
        <time>2018-12-29T03:43:33Z</time>
      </trkpt>
      <trkpt lat="34.345920" lon="-117.478940">
        <ele>1146.848</ele>
        <time>2018-12-29T03:43:53Z</time>
      </trkpt>
      <trkpt lat="34.345740" lon="-117.479190">
        <ele>1146.361</ele>
        <time>2018-12-29T03:44:13Z</time>
      </trkpt>
      <trkpt lat="34.345570" lon="-117.479420">
        <ele>1145.417</ele>
        <time>2018-12-29T03:44:33Z</time>
      </trkpt>
      <trkpt lat="34.345370" lon="-117.479660">
        <ele>1143.908</ele>
        <time>2018-12-29T03:44:53Z</time>
      </trkpt>
      <trkpt lat="34.345140" lon="-117.479930">
        <ele>1142.337</ele>
        <time>2018-12-29T03:45:13Z</time>
      </trkpt>
      <trkpt lat="34.344920" lon="-117.480170">
        <ele>1140.755</ele>
        <time>2018-12-29T03:45:33Z</time>
      </trkpt>
      <trkpt lat="34.344710" lon="-117.480370">
        <ele>1139.070</ele>
        <time>2018-12-29T03:45:53Z</time>
      </trkpt>
      <trkpt lat="34.344450" lon="-117.480610">
        <ele>1137.591</ele>
        <time>2018-12-29T03:46:13Z</time>
      </trkpt>
      <trkpt lat="34.344140" lon="-117.480870">
        <ele>1136.626</ele>
        <time>2018-12-29T03:46:33Z</time>
      </trkpt>
      <trkpt lat="34.343880" lon="-117.481070">
        <ele>1135.887</ele>
        <time>2018-12-29T03:46:53Z</time>
      </trkpt>
      <trkpt lat="34.343600" lon="-117.481260">
        <ele>1133.970</ele>
        <time>2018-12-29T03:47:13Z</time>
      </trkpt>
      <trkpt lat="34.343340" lon="-117.481430">
        <ele>1128.040</ele>
        <time>2018-12-29T03:47:33Z</time>
      </trkpt>
      <trkpt lat="34.343050" lon="-117.481610">
        <ele>1123.074</ele>
        <time>2018-12-29T03:47:53Z</time>
      </trkpt>
      <trkpt lat="34.342750" lon="-117.481770">
        <ele>1121.656</ele>
        <time>2018-12-29T03:48:13Z</time>
      </trkpt>
      <trkpt lat="34.342450" lon="-117.481920">
        <ele>1121.121</ele>
        <time>2018-12-29T03:48:33Z</time>
      </trkpt>
      <trkpt lat="34.342180" lon="-117.482040">
        <ele>1120.308</ele>
        <time>2018-12-29T03:48:53Z</time>
      </trkpt>
      <trkpt lat="34.341870" lon="-117.482150">
        <ele>1117.430</ele>
        <time>2018-12-29T03:49:13Z</time>
      </trkpt>
      <trkpt lat="34.341570" lon="-117.482250">
        <ele>1114.468</ele>
        <time>2018-12-29T03:49:33Z</time>
      </trkpt>
      <trkpt lat="34.341300" lon="-117.482330">
        <ele>1112.873</ele>
        <time>2018-12-29T03:49:53Z</time>
      </trkpt>
      <trkpt lat="34.340950" lon="-117.482410">
        <ele>1111.694</ele>
        <time>2018-12-29T03:50:13Z</time>
      </trkpt>
      <trkpt lat="34.340640" lon="-117.482470">
        <ele>1110.769</ele>
        <time>2018-12-29T03:50:33Z</time>
      </trkpt>
      <trkpt lat="34.340370" lon="-117.482500">
        <ele>1110.060</ele>
        <time>2018-12-29T03:50:53Z</time>
      </trkpt>
      <trkpt lat="34.340120" lon="-117.482520">
        <ele>1107.443</ele>
        <time>2018-12-29T03:51:13Z</time>
      </trkpt>
      <trkpt lat="34.339820" lon="-117.482540">
        <ele>1102.483</ele>
        <time>2018-12-29T03:51:33Z</time>
      </trkpt>
      <trkpt lat="34.339580" lon="-117.482550">
        <ele>1099.424</ele>
        <time>2018-12-29T03:51:53Z</time>
      </trkpt>
      <trkpt lat="34.339290" lon="-117.482550">
        <ele>1099.004</ele>
        <time>2018-12-29T03:52:13Z</time>
      </trkpt>
      <trkpt lat="34.337150" lon="-117.482530">
        <ele>1074.714</ele>
        <time>2018-12-29T03:52:33Z</time>
      </trkpt>
      <trkpt lat="34.330530" lon="-117.482460">
        <ele>1068.108</ele>
        <time>2018-12-29T03:52:53Z</time>
      </trkpt>
      <trkpt lat="34.329490" lon="-117.482450">
        <ele>1061.255</ele>
        <time>2018-12-29T03:53:13Z</time>
      </trkpt>
      <trkpt lat="34.328450" lon="-117.482440">
        <ele>1040.083</ele>
        <time>2018-12-29T03:53:33Z</time>
      </trkpt>
      <trkpt lat="34.327810" lon="-117.482440">
        <ele>1032.638</ele>
        <time>2018-12-29T03:53:53Z</time>
      </trkpt>
      <trkpt lat="34.325440" lon="-117.482430">
        <ele>1017.099</ele>
        <time>2018-12-29T03:54:13Z</time>
      </trkpt>
      <trkpt lat="34.325010" lon="-117.482420">
        <ele>1015.484</ele>
        <time>2018-12-29T03:54:33Z</time>
      </trkpt>
      <trkpt lat="34.324750" lon="-117.482410">
        <ele>1014.685</ele>
        <time>2018-12-29T03:54:53Z</time>
      </trkpt>
      <trkpt lat="34.324490" lon="-117.482400">
        <ele>1013.528</ele>
        <time>2018-12-29T03:55:13Z</time>
      </trkpt>
      <trkpt lat="34.324300" lon="-117.482390">
        <ele>1012.518</ele>
        <time>2018-12-29T03:55:33Z</time>
      </trkpt>
      <trkpt lat="34.324060" lon="-117.482380">
        <ele>1010.041</ele>
        <time>2018-12-29T03:55:53Z</time>
      </trkpt>
      <trkpt lat="34.323880" lon="-117.482360">
        <ele>1007.581</ele>
        <time>2018-12-29T03:56:13Z</time>
      </trkpt>
      <trkpt lat="34.323740" lon="-117.482340">
        <ele>1005.609</ele>
        <time>2018-12-29T03:56:33Z</time>
      </trkpt>
      <trkpt lat="34.323550" lon="-117.482330">
        <ele>1003.308</ele>
        <time>2018-12-29T03:56:53Z</time>
      </trkpt>
      <trkpt lat="34.323420" lon="-117.482310">
        <ele>1001.957</ele>
        <time>2018-12-29T03:57:13Z</time>
      </trkpt>
      <trkpt lat="34.323230" lon="-117.482280">
        <ele>1000.495</ele>
        <time>2018-12-29T03:57:33Z</time>
      </trkpt>
      <trkpt lat="34.323110" lon="-117.482270">
        <ele>1000.330</ele>
        <time>2018-12-29T03:57:53Z</time>
      </trkpt>
      <trkpt lat="34.323000" lon="-117.482250">
        <ele>1000.721</ele>
        <time>2018-12-29T03:58:13Z</time>
      </trkpt>
      <trkpt lat="34.322820" lon="-117.482220">
        <ele>1001.146</ele>
        <time>2018-12-29T03:58:33Z</time>
      </trkpt>
      <trkpt lat="34.322720" lon="-117.482210">
        <ele>1001.397</ele>
        <time>2018-12-29T03:58:53Z</time>
      </trkpt>
      <trkpt lat="34.322630" lon="-117.482190">
        <ele>1001.450</ele>
        <time>2018-12-29T03:59:13Z</time>
      </trkpt>
      <trkpt lat="34.322500" lon="-117.482170">
        <ele>1001.130</ele>
        <time>2018-12-29T03:59:33Z</time>
      </trkpt>
      <trkpt lat="34.322370" lon="-117.482140">
        <ele>1001.012</ele>
        <time>2018-12-29T03:59:53Z</time>
      </trkpt>
      <trkpt lat="34.322200" lon="-117.482110">
        <ele>998.732</ele>
        <time>2018-12-29T04:00:13Z</time>
      </trkpt>
      <trkpt lat="34.321840" lon="-117.482030">
        <ele>993.605</ele>
        <time>2018-12-29T04:00:33Z</time>
      </trkpt>
      <trkpt lat="34.321100" lon="-117.481830">
        <ele>988.508</ele>
        <time>2018-12-29T04:00:53Z</time>
      </trkpt>
      <trkpt lat="34.320870" lon="-117.481760">
        <ele>988.084</ele>
        <time>2018-12-29T04:01:13Z</time>
      </trkpt>
      <trkpt lat="34.320680" lon="-117.481700">
        <ele>988.842</ele>
        <time>2018-12-29T04:01:33Z</time>
      </trkpt>
      <trkpt lat="34.320440" lon="-117.481620">
        <ele>989.387</ele>
        <time>2018-12-29T04:01:53Z</time>
      </trkpt>
      <trkpt lat="34.320200" lon="-117.481540">
        <ele>988.978</ele>
        <time>2018-12-29T04:02:13Z</time>
      </trkpt>
      <trkpt lat="34.319970" lon="-117.481460">
        <ele>988.513</ele>
        <time>2018-12-29T04:02:33Z</time>
      </trkpt>
      <trkpt lat="34.319680" lon="-117.481340">
        <ele>988.854</ele>
        <time>2018-12-29T04:02:53Z</time>
      </trkpt>
      <trkpt lat="34.319390" lon="-117.481220">
        <ele>986.667</ele>
        <time>2018-12-29T04:03:13Z</time>
      </trkpt>
      <trkpt lat="34.319210" lon="-117.481150">
        <ele>984.117</ele>
        <time>2018-12-29T04:03:33Z</time>
      </trkpt>
      <trkpt lat="34.318970" lon="-117.481040">
        <ele>981.182</ele>
        <time>2018-12-29T04:03:53Z</time>
      </trkpt>
      <trkpt lat="34.318730" lon="-117.480930">
        <ele>978.443</ele>
        <time>2018-12-29T04:04:13Z</time>
      </trkpt>
      <trkpt lat="34.318490" lon="-117.480810">
        <ele>976.617</ele>
        <time>2018-12-29T04:04:33Z</time>
      </trkpt>
      <trkpt lat="34.318260" lon="-117.480690">
        <ele>976.008</ele>
        <time>2018-12-29T04:04:53Z</time>
      </trkpt>
      <trkpt lat="34.317980" lon="-117.480550">
        <ele>975.821</ele>
        <time>2018-12-29T04:05:13Z</time>
      </trkpt>
      <trkpt lat="34.317730" lon="-117.480410">
        <ele>975.949</ele>
        <time>2018-12-29T04:05:33Z</time>
      </trkpt>
      <trkpt lat="34.317480" lon="-117.480270">
        <ele>975.284</ele>
        <time>2018-12-29T04:05:53Z</time>
      </trkpt>
      <trkpt lat="34.317250" lon="-117.480130">
        <ele>974.715</ele>
        <time>2018-12-29T04:06:13Z</time>
      </trkpt>
      <trkpt lat="34.317010" lon="-117.479980">
        <ele>973.430</ele>
        <time>2018-12-29T04:06:33Z</time>
      </trkpt>
      <trkpt lat="34.316750" lon="-117.479810">
        <ele>972.551</ele>
        <time>2018-12-29T04:06:53Z</time>
      </trkpt>
      <trkpt lat="34.316520" lon="-117.479660">
        <ele>971.714</ele>
        <time>2018-12-29T04:07:13Z</time>
      </trkpt>
      <trkpt lat="34.316270" lon="-117.479490">
        <ele>970.374</ele>
        <time>2018-12-29T04:07:33Z</time>
      </trkpt>
      <trkpt lat="34.316080" lon="-117.479350">
        <ele>970.222</ele>
        <time>2018-12-29T04:07:53Z</time>
      </trkpt>
      <trkpt lat="34.315870" lon="-117.479200">
        <ele>970.962</ele>
        <time>2018-12-29T04:08:13Z</time>
      </trkpt>
      <trkpt lat="34.315620" lon="-117.479010">
        <ele>973.308</ele>
        <time>2018-12-29T04:08:33Z</time>
      </trkpt>
      <trkpt lat="34.315410" lon="-117.478850">
        <ele>975.508</ele>
        <time>2018-12-29T04:08:53Z</time>
      </trkpt>
      <trkpt lat="34.315230" lon="-117.478710">
        <ele>976.325</ele>
        <time>2018-12-29T04:09:13Z</time>
      </trkpt>
      <trkpt lat="34.315220" lon="-117.478700">
        <ele>976.313</ele>
        <time>2018-12-29T04:09:33Z</time>
      </trkpt>
      <trkpt lat="34.315060" lon="-117.478560">
        <ele>975.378</ele>
        <time>2018-12-29T04:09:53Z</time>
      </trkpt>
      <trkpt lat="34.314960" lon="-117.478470">
        <ele>973.869</ele>
        <time>2018-12-29T04:10:13Z</time>
      </trkpt>
      <trkpt lat="34.314630" lon="-117.478190">
        <ele>967.294</ele>
        <time>2018-12-29T04:10:33Z</time>
      </trkpt>
      <trkpt lat="34.314320" lon="-117.477900">
        <ele>963.535</ele>
        <time>2018-12-29T04:10:53Z</time>
      </trkpt>
      <trkpt lat="34.314120" lon="-117.477720">
        <ele>962.278</ele>
        <time>2018-12-29T04:11:13Z</time>
      </trkpt>
      <trkpt lat="34.313910" lon="-117.477500">
        <ele>961.798</ele>
        <time>2018-12-29T04:11:33Z</time>
      </trkpt>
      <trkpt lat="34.313720" lon="-117.477310">
        <ele>961.131</ele>
        <time>2018-12-29T04:11:53Z</time>
      </trkpt>
      <trkpt lat="34.313540" lon="-117.477130">
        <ele>960.161</ele>
        <time>2018-12-29T04:12:13Z</time>
      </trkpt>
      <trkpt lat="34.313300" lon="-117.476860">
        <ele>959.007</ele>
        <time>2018-12-29T04:12:33Z</time>
      </trkpt>
      <trkpt lat="34.313000" lon="-117.476540">
        <ele>957.608</ele>
        <time>2018-12-29T04:12:53Z</time>
      </trkpt>
      <trkpt lat="34.312230" lon="-117.475620">
        <ele>950.926</ele>
        <time>2018-12-29T04:13:13Z</time>
      </trkpt>
      <trkpt lat="34.311800" lon="-117.475100">
        <ele>948.574</ele>
        <time>2018-12-29T04:13:33Z</time>
      </trkpt>
      <trkpt lat="34.311570" lon="-117.474820">
        <ele>948.069</ele>
        <time>2018-12-29T04:13:53Z</time>
      </trkpt>
      <trkpt lat="34.310960" lon="-117.474100">
        <ele>944.590</ele>
        <time>2018-12-29T04:14:13Z</time>
      </trkpt>
      <trkpt lat="34.310180" lon="-117.473190">
        <ele>939.955</ele>
        <time>2018-12-29T04:14:33Z</time>
      </trkpt>
      <trkpt lat="34.308790" lon="-117.471530">
        <ele>931.776</ele>
        <time>2018-12-29T04:14:53Z</time>
      </trkpt>
      <trkpt lat="34.308600" lon="-117.471310">
        <ele>930.169</ele>
        <time>2018-12-29T04:15:13Z</time>
      </trkpt>
      <trkpt lat="34.308200" lon="-117.470830">
        <ele>927.149</ele>
        <time>2018-12-29T04:15:33Z</time>
      </trkpt>
      <trkpt lat="34.307510" lon="-117.470010">
        <ele>924.699</ele>
        <time>2018-12-29T04:15:53Z</time>
      </trkpt>
      <trkpt lat="34.307160" lon="-117.469600">
        <ele>923.007</ele>
        <time>2018-12-29T04:16:13Z</time>
      </trkpt>
      <trkpt lat="34.306960" lon="-117.469350">
        <ele>922.027</ele>
        <time>2018-12-29T04:16:33Z</time>
      </trkpt>
      <trkpt lat="34.306660" lon="-117.468980">
        <ele>920.408</ele>
        <time>2018-12-29T04:16:53Z</time>
      </trkpt>
      <trkpt lat="34.306540" lon="-117.468840">
        <ele>919.992</ele>
        <time>2018-12-29T04:17:13Z</time>
      </trkpt>
      <trkpt lat="34.306410" lon="-117.468680">
        <ele>919.250</ele>
        <time>2018-12-29T04:17:33Z</time>
      </trkpt>
      <trkpt lat="34.306290" lon="-117.468520">
        <ele>918.775</ele>
        <time>2018-12-29T04:17:53Z</time>
      </trkpt>
      <trkpt lat="34.306070" lon="-117.468230">
        <ele>918.056</ele>
        <time>2018-12-29T04:18:13Z</time>
      </trkpt>
      <trkpt lat="34.305910" lon="-117.468000">
        <ele>917.361</ele>
        <time>2018-12-29T04:18:33Z</time>
      </trkpt>
      <trkpt lat="34.305730" lon="-117.467710">
        <ele>916.042</ele>
        <time>2018-12-29T04:18:53Z</time>
      </trkpt>
      <trkpt lat="34.305560" lon="-117.467440">
        <ele>914.615</ele>
        <time>2018-12-29T04:19:13Z</time>
      </trkpt>
      <trkpt lat="34.305430" lon="-117.467220">
        <ele>913.385</ele>
        <time>2018-12-29T04:19:33Z</time>
      </trkpt>
      <trkpt lat="34.305330" lon="-117.467050">
        <ele>912.389</ele>
        <time>2018-12-29T04:19:53Z</time>
      </trkpt>
      <trkpt lat="34.305240" lon="-117.466860">
        <ele>911.706</ele>
        <time>2018-12-29T04:20:13Z</time>
      </trkpt>
      <trkpt lat="34.305150" lon="-117.466700">
        <ele>911.026</ele>
        <time>2018-12-29T04:20:33Z</time>
      </trkpt>
      <trkpt lat="34.305080" lon="-117.466530">
        <ele>910.608</ele>
        <time>2018-12-29T04:20:53Z</time>
      </trkpt>
      <trkpt lat="34.304990" lon="-117.466340">
        <ele>909.951</ele>
        <time>2018-12-29T04:21:13Z</time>
      </trkpt>
      <trkpt lat="34.304900" lon="-117.466140">
        <ele>908.889</ele>
        <time>2018-12-29T04:21:33Z</time>
      </trkpt>
      <trkpt lat="34.304800" lon="-117.465910">
        <ele>907.884</ele>
        <time>2018-12-29T04:21:53Z</time>
      </trkpt>
      <trkpt lat="34.304700" lon="-117.465640">
        <ele>908.365</ele>
        <time>2018-12-29T04:22:13Z</time>
      </trkpt>
      <trkpt lat="34.304640" lon="-117.465450">
        <ele>909.590</ele>
        <time>2018-12-29T04:22:33Z</time>
      </trkpt>
      <trkpt lat="34.304560" lon="-117.465240">
        <ele>911.011</ele>
        <time>2018-12-29T04:22:53Z</time>
      </trkpt>
      <trkpt lat="34.304520" lon="-117.465100">
        <ele>912.184</ele>
        <time>2018-12-29T04:23:13Z</time>
      </trkpt>
      <trkpt lat="34.304480" lon="-117.464960">
        <ele>913.264</ele>
        <time>2018-12-29T04:23:33Z</time>
      </trkpt>
      <trkpt lat="34.304430" lon="-117.464800">
        <ele>914.885</ele>
        <time>2018-12-29T04:23:53Z</time>
      </trkpt>
      <trkpt lat="34.304370" lon="-117.464620">
        <ele>916.389</ele>
        <time>2018-12-29T04:24:13Z</time>
      </trkpt>
      <trkpt lat="34.304300" lon="-117.464380">
        <ele>918.617</ele>
        <time>2018-12-29T04:24:33Z</time>
      </trkpt>
      <trkpt lat="34.304250" lon="-117.464220">
        <ele>921.908</ele>
        <time>2018-12-29T04:24:53Z</time>
      </trkpt>
      <trkpt lat="34.304190" lon="-117.464040">
        <ele>924.691</ele>
        <time>2018-12-29T04:25:13Z</time>
      </trkpt>
      <trkpt lat="34.304130" lon="-117.463870">
        <ele>921.729</ele>
        <time>2018-12-29T04:25:33Z</time>
      </trkpt>
      <trkpt lat="34.304050" lon="-117.463680">
        <ele>916.934</ele>
        <time>2018-12-29T04:25:53Z</time>
      </trkpt>
      <trkpt lat="34.303950" lon="-117.463460">
        <ele>916.445</ele>
        <time>2018-12-29T04:26:13Z</time>
      </trkpt>
      <trkpt lat="34.303870" lon="-117.463260">
        <ele>917.970</ele>
        <time>2018-12-29T04:26:33Z</time>
      </trkpt>
      <trkpt lat="34.303790" lon="-117.463100">
        <ele>914.461</ele>
        <time>2018-12-29T04:26:53Z</time>
      </trkpt>
      <trkpt lat="34.303660" lon="-117.462830">
        <ele>910.314</ele>
        <time>2018-12-29T04:27:13Z</time>
      </trkpt>
      <trkpt lat="34.303550" lon="-117.462630">
        <ele>909.094</ele>
        <time>2018-12-29T04:27:33Z</time>
      </trkpt>
      <trkpt lat="34.303420" lon="-117.462390">
        <ele>908.527</ele>
        <time>2018-12-29T04:27:53Z</time>
      </trkpt>
      <trkpt lat="34.303290" lon="-117.462160">
        <ele>908.268</ele>
        <time>2018-12-29T04:28:13Z</time>
      </trkpt>
      <trkpt lat="34.303160" lon="-117.461960">
        <ele>909.314</ele>
        <time>2018-12-29T04:28:33Z</time>
      </trkpt>
      <trkpt lat="34.303060" lon="-117.461800">
        <ele>912.508</ele>
        <time>2018-12-29T04:28:53Z</time>
      </trkpt>
      <trkpt lat="34.302910" lon="-117.461580">
        <ele>914.825</ele>
        <time>2018-12-29T04:29:13Z</time>
      </trkpt>
      <trkpt lat="34.302780" lon="-117.461390">
        <ele>915.263</ele>
        <time>2018-12-29T04:29:33Z</time>
      </trkpt>
      <trkpt lat="34.302630" lon="-117.461180">
        <ele>917.758</ele>
        <time>2018-12-29T04:29:53Z</time>
      </trkpt>
      <trkpt lat="34.302520" lon="-117.461030">
        <ele>917.669</ele>
        <time>2018-12-29T04:30:13Z</time>
      </trkpt>
      <trkpt lat="34.302410" lon="-117.460890">
        <ele>917.854</ele>
        <time>2018-12-29T04:30:33Z</time>
      </trkpt>
      <trkpt lat="34.302260" lon="-117.460710">
        <ele>918.285</ele>
        <time>2018-12-29T04:30:53Z</time>
      </trkpt>
      <trkpt lat="34.302160" lon="-117.460600">
        <ele>918.668</ele>
        <time>2018-12-29T04:31:13Z</time>
      </trkpt>
      <trkpt lat="34.302070" lon="-117.460500">
        <ele>918.918</ele>
        <time>2018-12-29T04:31:33Z</time>
      </trkpt>
      <trkpt lat="34.302040" lon="-117.460470">
        <ele>919.089</ele>
        <time>2018-12-29T04:31:53Z</time>
      </trkpt>
      <trkpt lat="34.301990" lon="-117.460420">
        <ele>919.306</ele>
        <time>2018-12-29T04:32:13Z</time>
      </trkpt>
      <trkpt lat="34.301900" lon="-117.460320">
        <ele>919.426</ele>
        <time>2018-12-29T04:32:33Z</time>
      </trkpt>
      <trkpt lat="34.301770" lon="-117.460200">
        <ele>919.108</ele>
        <time>2018-12-29T04:32:53Z</time>
      </trkpt>
      <trkpt lat="34.301630" lon="-117.460060">
        <ele>918.231</ele>
        <time>2018-12-29T04:33:13Z</time>
      </trkpt>
      <trkpt lat="34.300770" lon="-117.459370">
        <ele>911.339</ele>
        <time>2018-12-29T04:33:33Z</time>
      </trkpt>
      <trkpt lat="34.300010" lon="-117.458770">
        <ele>906.914</ele>
        <time>2018-12-29T04:33:53Z</time>
      </trkpt>
      <trkpt lat="34.299160" lon="-117.458090">
        <ele>904.645</ele>
        <time>2018-12-29T04:34:13Z</time>
      </trkpt>
      <trkpt lat="34.298830" lon="-117.457840">
        <ele>902.970</ele>
        <time>2018-12-29T04:34:33Z</time>
      </trkpt>
      <trkpt lat="34.298750" lon="-117.457780">
        <ele>902.351</ele>
        <time>2018-12-29T04:34:53Z</time>
      </trkpt>
      <trkpt lat="34.298540" lon="-117.457610">
        <ele>902.274</ele>
        <time>2018-12-29T04:35:13Z</time>
      </trkpt>
      <trkpt lat="34.296910" lon="-117.456310">
        <ele>901.064</ele>
        <time>2018-12-29T04:35:33Z</time>
      </trkpt>
      <trkpt lat="34.296770" lon="-117.456170">
        <ele>902.443</ele>
        <time>2018-12-29T04:35:53Z</time>
      </trkpt>
      <trkpt lat="34.295950" lon="-117.455500">
        <ele>902.164</ele>
        <time>2018-12-29T04:36:13Z</time>
      </trkpt>
      <trkpt lat="34.295450" lon="-117.455100">
        <ele>905.410</ele>
        <time>2018-12-29T04:36:33Z</time>
      </trkpt>
      <trkpt lat="34.293740" lon="-117.453750">
        <ele>905.808</ele>
        <time>2018-12-29T04:36:53Z</time>
      </trkpt>
      <trkpt lat="34.293640" lon="-117.453670">
        <ele>905.787</ele>
        <time>2018-12-29T04:37:13Z</time>
      </trkpt>
      <trkpt lat="34.293540" lon="-117.453600">
        <ele>905.555</ele>
        <time>2018-12-29T04:37:33Z</time>
      </trkpt>
      <trkpt lat="34.293330" lon="-117.453460">
        <ele>905.620</ele>
        <time>2018-12-29T04:37:53Z</time>
      </trkpt>
      <trkpt lat="34.293100" lon="-117.453320">
        <ele>903.981</ele>
        <time>2018-12-29T04:38:13Z</time>
      </trkpt>
      <trkpt lat="34.292900" lon="-117.453200">
        <ele>901.676</ele>
        <time>2018-12-29T04:38:33Z</time>
      </trkpt>
      <trkpt lat="34.292620" lon="-117.453030">
        <ele>900.957</ele>
        <time>2018-12-29T04:38:53Z</time>
      </trkpt>
      <trkpt lat="34.292040" lon="-117.452740">
        <ele>908.090</ele>
        <time>2018-12-29T04:39:13Z</time>
      </trkpt>
      <trkpt lat="34.291660" lon="-117.452570">
        <ele>914.830</ele>
        <time>2018-12-29T04:39:33Z</time>
      </trkpt>
      <trkpt lat="34.291360" lon="-117.452450">
        <ele>921.291</ele>
        <time>2018-12-29T04:39:53Z</time>
      </trkpt>
      <trkpt lat="34.290920" lon="-117.452300">
        <ele>921.981</ele>
        <time>2018-12-29T04:40:13Z</time>
      </trkpt>
      <trkpt lat="34.290660" lon="-117.452220">
        <ele>925.019</ele>
        <time>2018-12-29T04:40:33Z</time>
      </trkpt>
      <trkpt lat="34.290460" lon="-117.452160">
        <ele>925.708</ele>
        <time>2018-12-29T04:40:53Z</time>
      </trkpt>
      <trkpt lat="34.290050" lon="-117.452070">
        <ele>923.222</ele>
        <time>2018-12-29T04:41:13Z</time>
      </trkpt>
      <trkpt lat="34.289830" lon="-117.452020">
        <ele>914.790</ele>
        <time>2018-12-29T04:41:33Z</time>
      </trkpt>
      <trkpt lat="34.289640" lon="-117.451980">
        <ele>903.725</ele>
        <time>2018-12-29T04:41:53Z</time>
      </trkpt>
      <trkpt lat="34.289190" lon="-117.451920">
        <ele>905.646</ele>
        <time>2018-12-29T04:42:13Z</time>
      </trkpt>
      <trkpt lat="34.288640" lon="-117.451870">
        <ele>904.061</ele>
        <time>2018-12-29T04:42:33Z</time>
      </trkpt>
      <trkpt lat="34.288090" lon="-117.451860">
        <ele>908.472</ele>
        <time>2018-12-29T04:42:53Z</time>
      </trkpt>
      <trkpt lat="34.287860" lon="-117.451860">
        <ele>910.225</ele>
        <time>2018-12-29T04:43:13Z</time>
      </trkpt>
      <trkpt lat="34.287630" lon="-117.451870">
        <ele>908.855</ele>
        <time>2018-12-29T04:43:33Z</time>
      </trkpt>
      <trkpt lat="34.287420" lon="-117.451890">
        <ele>907.573</ele>
        <time>2018-12-29T04:43:53Z</time>
      </trkpt>
      <trkpt lat="34.287140" lon="-117.451920">
        <ele>902.285</ele>
        <time>2018-12-29T04:44:13Z</time>
      </trkpt>
      <trkpt lat="34.286720" lon="-117.451960">
        <ele>890.613</ele>
        <time>2018-12-29T04:44:33Z</time>
      </trkpt>
      <trkpt lat="34.286140" lon="-117.452010">
        <ele>892.208</ele>
        <time>2018-12-29T04:44:53Z</time>
      </trkpt>
      <trkpt lat="34.283070" lon="-117.452330">
        <ele>879.880</ele>
        <time>2018-12-29T04:45:13Z</time>
      </trkpt>
      <trkpt lat="34.282720" lon="-117.452370">
        <ele>879.248</ele>
        <time>2018-12-29T04:45:33Z</time>
      </trkpt>
      <trkpt lat="34.282310" lon="-117.452410">
        <ele>876.473</ele>
        <time>2018-12-29T04:45:53Z</time>
      </trkpt>
      <trkpt lat="34.281700" lon="-117.452470">
        <ele>881.924</ele>
        <time>2018-12-29T04:46:13Z</time>
      </trkpt>
      <trkpt lat="34.281500" lon="-117.452480">
        <ele>882.259</ele>
        <time>2018-12-29T04:46:33Z</time>
      </trkpt>
      <trkpt lat="34.281240" lon="-117.452480">
        <ele>882.970</ele>
        <time>2018-12-29T04:46:53Z</time>
      </trkpt>
      <trkpt lat="34.281120" lon="-117.452470">
        <ele>886.313</ele>
        <time>2018-12-29T04:47:13Z</time>
      </trkpt>
      <trkpt lat="34.280970" lon="-117.452470">
        <ele>890.273</ele>
        <time>2018-12-29T04:47:33Z</time>
      </trkpt>
      <trkpt lat="34.280790" lon="-117.452450">
        <ele>903.588</ele>
        <time>2018-12-29T04:47:53Z</time>
      </trkpt>
      <trkpt lat="34.280490" lon="-117.452420">
        <ele>910.924</ele>
        <time>2018-12-29T04:48:13Z</time>
      </trkpt>
      <trkpt lat="34.280270" lon="-117.452400">
        <ele>902.026</ele>
        <time>2018-12-29T04:48:33Z</time>
      </trkpt>
      <trkpt lat="34.279910" lon="-117.452340">
        <ele>883.108</ele>
        <time>2018-12-29T04:48:53Z</time>
      </trkpt>
      <trkpt lat="34.279730" lon="-117.452290">
        <ele>878.621</ele>
        <time>2018-12-29T04:49:13Z</time>
      </trkpt>
      <trkpt lat="34.279610" lon="-117.452260">
        <ele>876.869</ele>
        <time>2018-12-29T04:49:33Z</time>
      </trkpt>
      <trkpt lat="34.279440" lon="-117.452220">
        <ele>874.564</ele>
        <time>2018-12-29T04:49:53Z</time>
      </trkpt>
      <trkpt lat="34.279270" lon="-117.452170">
        <ele>872.615</ele>
        <time>2018-12-29T04:50:13Z</time>
      </trkpt>
      <trkpt lat="34.279050" lon="-117.452100">
        <ele>870.680</ele>
        <time>2018-12-29T04:50:33Z</time>
      </trkpt>
      <trkpt lat="34.278850" lon="-117.452030">
        <ele>869.191</ele>
        <time>2018-12-29T04:50:53Z</time>
      </trkpt>
      <trkpt lat="34.278680" lon="-117.451960">
        <ele>867.464</ele>
        <time>2018-12-29T04:51:13Z</time>
      </trkpt>
      <trkpt lat="34.278470" lon="-117.451870">
        <ele>864.614</ele>
        <time>2018-12-29T04:51:33Z</time>
      </trkpt>
      <trkpt lat="34.278230" lon="-117.451760">
        <ele>859.228</ele>
        <time>2018-12-29T04:51:53Z</time>
      </trkpt>
      <trkpt lat="34.278100" lon="-117.451700">
        <ele>859.489</ele>
        <time>2018-12-29T04:52:13Z</time>
      </trkpt>
      <trkpt lat="34.277910" lon="-117.451610">
        <ele>862.217</ele>
        <time>2018-12-29T04:52:33Z</time>
      </trkpt>
      <trkpt lat="34.277800" lon="-117.451540">
        <ele>865.408</ele>
        <time>2018-12-29T04:52:53Z</time>
      </trkpt>
      <trkpt lat="34.277760" lon="-117.451520">
        <ele>866.625</ele>
        <time>2018-12-29T04:53:13Z</time>
      </trkpt>
      <trkpt lat="34.277610" lon="-117.451440">
        <ele>873.293</ele>
        <time>2018-12-29T04:53:33Z</time>
      </trkpt>
      <trkpt lat="34.277410" lon="-117.451330">
        <ele>886.998</ele>
        <time>2018-12-29T04:53:53Z</time>
      </trkpt>
      <trkpt lat="34.277230" lon="-117.451220">
        <ele>892.419</ele>
        <time>2018-12-29T04:54:13Z</time>
      </trkpt>
      <trkpt lat="34.276740" lon="-117.450940">
        <ele>891.094</ele>
        <time>2018-12-29T04:54:33Z</time>
      </trkpt>
      <trkpt lat="34.276490" lon="-117.450790">
        <ele>888.415</ele>
        <time>2018-12-29T04:54:53Z</time>
      </trkpt>
      <trkpt lat="34.276240" lon="-117.450650">
        <ele>884.768</ele>
        <time>2018-12-29T04:55:13Z</time>
      </trkpt>
      <trkpt lat="34.276030" lon="-117.450550">
        <ele>881.128</ele>
        <time>2018-12-29T04:55:33Z</time>
      </trkpt>
      <trkpt lat="34.275840" lon="-117.450460">
        <ele>871.184</ele>
        <time>2018-12-29T04:55:53Z</time>
      </trkpt>
      <trkpt lat="34.275650" lon="-117.450370">
        <ele>857.907</ele>
        <time>2018-12-29T04:56:13Z</time>
      </trkpt>
      <trkpt lat="34.275450" lon="-117.450290">
        <ele>852.117</ele>
        <time>2018-12-29T04:56:33Z</time>
      </trkpt>
      <trkpt lat="34.275370" lon="-117.450260">
        <ele>852.408</ele>
        <time>2018-12-29T04:56:53Z</time>
      </trkpt>
      <trkpt lat="34.275220" lon="-117.450200">
        <ele>855.951</ele>
        <time>2018-12-29T04:57:13Z</time>
      </trkpt>
      <trkpt lat="34.275140" lon="-117.450170">
        <ele>858.019</ele>
        <time>2018-12-29T04:57:33Z</time>
      </trkpt>
      <trkpt lat="34.274750" lon="-117.450060">
        <ele>856.724</ele>
        <time>2018-12-29T04:57:53Z</time>
      </trkpt>
      <trkpt lat="34.274430" lon="-117.449960">
        <ele>872.775</ele>
        <time>2018-12-29T04:58:13Z</time>
      </trkpt>
      <trkpt lat="34.274260" lon="-117.449930">
        <ele>888.630</ele>
        <time>2018-12-29T04:58:33Z</time>
      </trkpt>
      <trkpt lat="34.274100" lon="-117.449900">
        <ele>898.571</ele>
        <time>2018-12-29T04:58:53Z</time>
      </trkpt>
      <trkpt lat="34.273950" lon="-117.449880">
        <ele>903.394</ele>
        <time>2018-12-29T04:59:13Z</time>
      </trkpt>
      <trkpt lat="34.273710" lon="-117.449850">
        <ele>900.684</ele>
        <time>2018-12-29T04:59:33Z</time>
      </trkpt>
      <trkpt lat="34.273580" lon="-117.449830">
        <ele>891.723</ele>
        <time>2018-12-29T04:59:53Z</time>
      </trkpt>
      <trkpt lat="34.273430" lon="-117.449820">
        <ele>881.983</ele>
        <time>2018-12-29T05:00:13Z</time>
      </trkpt>
      <trkpt lat="34.273190" lon="-117.449810">
        <ele>866.711</ele>
        <time>2018-12-29T05:00:33Z</time>
      </trkpt>
      <trkpt lat="34.269310" lon="-117.449760">
        <ele>883.608</ele>
        <time>2018-12-29T05:00:53Z</time>
      </trkpt>
      <trkpt lat="34.268390" lon="-117.449750">
        <ele>873.845</ele>
        <time>2018-12-29T05:01:13Z</time>
      </trkpt>
      <trkpt lat="34.267720" lon="-117.449740">
        <ele>862.153</ele>
        <time>2018-12-29T05:01:33Z</time>
      </trkpt>
      <trkpt lat="34.267280" lon="-117.449730">
        <ele>857.368</ele>
        <time>2018-12-29T05:01:53Z</time>
      </trkpt>
      <trkpt lat="34.266680" lon="-117.449720">
        <ele>867.399</ele>
        <time>2018-12-29T05:02:13Z</time>
      </trkpt>
      <trkpt lat="34.265150" lon="-117.449700">
        <ele>866.514</ele>
        <time>2018-12-29T05:02:33Z</time>
      </trkpt>
      <trkpt lat="34.264530" lon="-117.449690">
        <ele>861.935</ele>
        <time>2018-12-29T05:02:53Z</time>
      </trkpt>
      <trkpt lat="34.264260" lon="-117.449680">
        <ele>860.188</ele>
        <time>2018-12-29T05:03:13Z</time>
      </trkpt>
      <trkpt lat="34.263850" lon="-117.449680">
        <ele>866.728</ele>
        <time>2018-12-29T05:03:33Z</time>
      </trkpt>
      <trkpt lat="34.263740" lon="-117.449680">
        <ele>870.087</ele>
        <time>2018-12-29T05:03:53Z</time>
      </trkpt>
      <trkpt lat="34.263610" lon="-117.449690">
        <ele>876.242</ele>
        <time>2018-12-29T05:04:13Z</time>
      </trkpt>
      <trkpt lat="34.263370" lon="-117.449690">
        <ele>889.626</ele>
        <time>2018-12-29T05:04:33Z</time>
      </trkpt>
      <trkpt lat="34.263100" lon="-117.449700">
        <ele>907.008</ele>
        <time>2018-12-29T05:04:53Z</time>
      </trkpt>
      <trkpt lat="34.262880" lon="-117.449710">
        <ele>917.591</ele>
        <time>2018-12-29T05:05:13Z</time>
      </trkpt>
      <trkpt lat="34.262300" lon="-117.449780">
        <ele>910.999</ele>
        <time>2018-12-29T05:05:33Z</time>
      </trkpt>
      <trkpt lat="34.261970" lon="-117.449820">
        <ele>900.354</ele>
        <time>2018-12-29T05:05:53Z</time>
      </trkpt>
      <trkpt lat="34.261650" lon="-117.449870">
        <ele>894.495</ele>
        <time>2018-12-29T05:06:13Z</time>
      </trkpt>
      <trkpt lat="34.259950" lon="-117.450120">
        <ele>861.770</ele>
        <time>2018-12-29T05:06:33Z</time>
      </trkpt>
      <trkpt lat="34.259680" lon="-117.450160">
        <ele>843.231</ele>
        <time>2018-12-29T05:06:53Z</time>
      </trkpt>
      <trkpt lat="34.259320" lon="-117.450220">
        <ele>828.924</ele>
        <time>2018-12-29T05:07:13Z</time>
      </trkpt>
      <trkpt lat="34.259060" lon="-117.450260">
        <ele>827.814</ele>
        <time>2018-12-29T05:07:33Z</time>
      </trkpt>
      <trkpt lat="34.258800" lon="-117.450290">
        <ele>828.392</ele>
        <time>2018-12-29T05:07:53Z</time>
      </trkpt>
      <trkpt lat="34.258470" lon="-117.450320">
        <ele>845.573</ele>
        <time>2018-12-29T05:08:13Z</time>
      </trkpt>
      <trkpt lat="34.258170" lon="-117.450320">
        <ele>866.820</ele>
        <time>2018-12-29T05:08:33Z</time>
      </trkpt>
      <trkpt lat="34.257890" lon="-117.450320">
        <ele>881.908</ele>
        <time>2018-12-29T05:08:53Z</time>
      </trkpt>
      <trkpt lat="34.257540" lon="-117.450300">
        <ele>899.942</ele>
        <time>2018-12-29T05:09:13Z</time>
      </trkpt>
      <trkpt lat="34.257000" lon="-117.450240">
        <ele>891.540</ele>
        <time>2018-12-29T05:09:33Z</time>
      </trkpt>
      <trkpt lat="34.256700" lon="-117.450180">
        <ele>878.555</ele>
        <time>2018-12-29T05:09:53Z</time>
      </trkpt>
      <trkpt lat="34.256350" lon="-117.450090">
        <ele>873.036</ele>
        <time>2018-12-29T05:10:13Z</time>
      </trkpt>
      <trkpt lat="34.256100" lon="-117.450030">
        <ele>872.191</ele>
        <time>2018-12-29T05:10:33Z</time>
      </trkpt>
      <trkpt lat="34.255880" lon="-117.449960">
        <ele>872.852</ele>
        <time>2018-12-29T05:10:53Z</time>
      </trkpt>
      <trkpt lat="34.255570" lon="-117.449850">
        <ele>879.335</ele>
        <time>2018-12-29T05:11:13Z</time>
      </trkpt>
      <trkpt lat="34.255280" lon="-117.449730">
        <ele>887.535</ele>
        <time>2018-12-29T05:11:33Z</time>
      </trkpt>
      <trkpt lat="34.255060" lon="-117.449640">
        <ele>894.189</ele>
        <time>2018-12-29T05:11:53Z</time>
      </trkpt>
      <trkpt lat="34.254980" lon="-117.449590">
        <ele>895.006</ele>
        <time>2018-12-29T05:12:13Z</time>
      </trkpt>
      <trkpt lat="34.254740" lon="-117.449470">
        <ele>883.926</ele>
        <time>2018-12-29T05:12:33Z</time>
      </trkpt>
      <trkpt lat="34.254510" lon="-117.449350">
        <ele>873.708</ele>
        <time>2018-12-29T05:12:53Z</time>
      </trkpt>
      <trkpt lat="34.254380" lon="-117.449270">
        <ele>876.221</ele>
        <time>2018-12-29T05:13:13Z</time>
      </trkpt>
      <trkpt lat="34.254030" lon="-117.449070">
        <ele>864.139</ele>
        <time>2018-12-29T05:13:33Z</time>
      </trkpt>
      <trkpt lat="34.253850" lon="-117.448930">
        <ele>852.244</ele>
        <time>2018-12-29T05:13:53Z</time>
      </trkpt>
      <trkpt lat="34.253580" lon="-117.448730">
        <ele>865.515</ele>
        <time>2018-12-29T05:14:13Z</time>
      </trkpt>
      <trkpt lat="34.253480" lon="-117.448660">
        <ele>867.470</ele>
        <time>2018-12-29T05:14:33Z</time>
      </trkpt>
      <trkpt lat="34.253370" lon="-117.448560">
        <ele>861.641</ele>
        <time>2018-12-29T05:14:53Z</time>
      </trkpt>
      <trkpt lat="34.253160" lon="-117.448380">
        <ele>858.564</ele>
        <time>2018-12-29T05:15:13Z</time>
      </trkpt>
      <trkpt lat="34.252960" lon="-117.448210">
        <ele>854.464</ele>
        <time>2018-12-29T05:15:33Z</time>
      </trkpt>
      <trkpt lat="34.252710" lon="-117.447970">
        <ele>841.032</ele>
        <time>2018-12-29T05:15:53Z</time>
      </trkpt>
      <trkpt lat="34.252450" lon="-117.447700">
        <ele>849.392</ele>
        <time>2018-12-29T05:16:13Z</time>
      </trkpt>
      <trkpt lat="34.252280" lon="-117.447500">
        <ele>853.511</ele>
        <time>2018-12-29T05:16:33Z</time>
      </trkpt>
      <trkpt lat="34.252110" lon="-117.447290">
        <ele>856.308</ele>
        <time>2018-12-29T05:16:53Z</time>
      </trkpt>
      <trkpt lat="34.251990" lon="-117.447140">
        <ele>853.866</ele>
        <time>2018-12-29T05:17:13Z</time>
      </trkpt>
      <trkpt lat="34.251810" lon="-117.446910">
        <ele>836.974</ele>
        <time>2018-12-29T05:17:33Z</time>
      </trkpt>
      <trkpt lat="34.251510" lon="-117.446470">
        <ele>843.799</ele>
        <time>2018-12-29T05:17:53Z</time>
      </trkpt>
      <trkpt lat="34.251240" lon="-117.446050">
        <ele>853.280</ele>
        <time>2018-12-29T05:18:13Z</time>
      </trkpt>
      <trkpt lat="34.250880" lon="-117.445390">
        <ele>811.735</ele>
        <time>2018-12-29T05:18:33Z</time>
      </trkpt>
      <trkpt lat="34.250490" lon="-117.444570">
        <ele>804.246</ele>
        <time>2018-12-29T05:18:53Z</time>
      </trkpt>
      <trkpt lat="34.250080" lon="-117.443730">
        <ele>814.289</ele>
        <time>2018-12-29T05:19:13Z</time>
      </trkpt>
      <trkpt lat="34.249840" lon="-117.443230">
        <ele>800.219</ele>
        <time>2018-12-29T05:19:33Z</time>
      </trkpt>
      <trkpt lat="34.249590" lon="-117.442740">
        <ele>796.151</ele>
        <time>2018-12-29T05:19:53Z</time>
      </trkpt>
      <trkpt lat="34.249560" lon="-117.442670">
        <ele>797.401</ele>
        <time>2018-12-29T05:20:13Z</time>
      </trkpt>
      <trkpt lat="34.249390" lon="-117.442310">
        <ele>804.411</ele>
        <time>2018-12-29T05:20:33Z</time>
      </trkpt>
      <trkpt lat="34.249180" lon="-117.441890">
        <ele>818.208</ele>
        <time>2018-12-29T05:20:53Z</time>
      </trkpt>
      <trkpt lat="34.248990" lon="-117.441490">
        <ele>828.318</ele>
        <time>2018-12-29T05:21:13Z</time>
      </trkpt>
      <trkpt lat="34.248870" lon="-117.441240">
        <ele>827.056</ele>
        <time>2018-12-29T05:21:33Z</time>
      </trkpt>
      <trkpt lat="34.248660" lon="-117.440810">
        <ele>816.871</ele>
        <time>2018-12-29T05:21:53Z</time>
      </trkpt>
      <trkpt lat="34.248440" lon="-117.440370">
        <ele>797.082</ele>
        <time>2018-12-29T05:22:13Z</time>
      </trkpt>
      <trkpt lat="34.248240" lon="-117.439960">
        <ele>795.837</ele>
        <time>2018-12-29T05:22:33Z</time>
      </trkpt>
      <trkpt lat="34.248030" lon="-117.439570">
        <ele>800.438</ele>
        <time>2018-12-29T05:22:53Z</time>
      </trkpt>
      <trkpt lat="34.247720" lon="-117.439050">
        <ele>809.391</ele>
        <time>2018-12-29T05:23:13Z</time>
      </trkpt>
      <trkpt lat="34.247560" lon="-117.438790">
        <ele>808.291</ele>
        <time>2018-12-29T05:23:33Z</time>
      </trkpt>
      <trkpt lat="34.247540" lon="-117.438760">
        <ele>808.313</ele>
        <time>2018-12-29T05:23:53Z</time>
      </trkpt>
      <trkpt lat="34.247400" lon="-117.438540">
        <ele>808.643</ele>
        <time>2018-12-29T05:24:13Z</time>
      </trkpt>
      <trkpt lat="34.247100" lon="-117.438100">
        <ele>807.307</ele>
        <time>2018-12-29T05:24:33Z</time>
      </trkpt>
      <trkpt lat="34.247040" lon="-117.438010">
        <ele>807.108</ele>
        <time>2018-12-29T05:24:53Z</time>
      </trkpt>
      <trkpt lat="34.247030" lon="-117.438000">
        <ele>807.244</ele>
        <time>2018-12-29T05:25:13Z</time>
      </trkpt>
      <trkpt lat="34.246950" lon="-117.437890">
        <ele>806.522</ele>
        <time>2018-12-29T05:25:33Z</time>
      </trkpt>
      <trkpt lat="34.246680" lon="-117.437550">
        <ele>795.597</ele>
        <time>2018-12-29T05:25:53Z</time>
      </trkpt>
      <trkpt lat="34.246420" lon="-117.437220">
        <ele>794.368</ele>
        <time>2018-12-29T05:26:13Z</time>
      </trkpt>
      <trkpt lat="34.246240" lon="-117.437000">
        <ele>794.223</ele>
        <time>2018-12-29T05:26:33Z</time>
      </trkpt>
      <trkpt lat="34.245940" lon="-117.436660">
        <ele>790.584</ele>
        <time>2018-12-29T05:26:53Z</time>
      </trkpt>
      <trkpt lat="34.245690" lon="-117.436400">
        <ele>786.537</ele>
        <time>2018-12-29T05:27:13Z</time>
      </trkpt>
      <trkpt lat="34.245680" lon="-117.436390">
        <ele>786.557</ele>
        <time>2018-12-29T05:27:33Z</time>
      </trkpt>
      <trkpt lat="34.245450" lon="-117.436160">
        <ele>784.178</ele>
        <time>2018-12-29T05:27:53Z</time>
      </trkpt>
      <trkpt lat="34.245100" lon="-117.435780">
        <ele>780.933</ele>
        <time>2018-12-29T05:28:13Z</time>
      </trkpt>
      <trkpt lat="34.244830" lon="-117.435500">
        <ele>782.326</ele>
        <time>2018-12-29T05:28:33Z</time>
      </trkpt>
      <trkpt lat="34.244360" lon="-117.435030">
        <ele>781.408</ele>
        <time>2018-12-29T05:28:53Z</time>
      </trkpt>
      <trkpt lat="34.244160" lon="-117.434830">
        <ele>780.590</ele>
        <time>2018-12-29T05:29:13Z</time>
      </trkpt>
      <trkpt lat="34.243740" lon="-117.434430">
        <ele>773.948</ele>
        <time>2018-12-29T05:29:33Z</time>
      </trkpt>
      <trkpt lat="34.242840" lon="-117.433480">
        <ele>766.933</ele>
        <time>2018-12-29T05:29:53Z</time>
      </trkpt>
      <trkpt lat="34.242570" lon="-117.433180">
        <ele>766.114</ele>
        <time>2018-12-29T05:30:13Z</time>
      </trkpt>
      <trkpt lat="34.242430" lon="-117.433020">
        <ele>765.489</ele>
        <time>2018-12-29T05:30:33Z</time>
      </trkpt>
      <trkpt lat="34.242260" lon="-117.432830">
        <ele>765.270</ele>
        <time>2018-12-29T05:30:53Z</time>
      </trkpt>
      <trkpt lat="34.241970" lon="-117.432480">
        <ele>768.063</ele>
        <time>2018-12-29T05:31:13Z</time>
      </trkpt>
      <trkpt lat="34.241730" lon="-117.432180">
        <ele>769.473</ele>
        <time>2018-12-29T05:31:33Z</time>
      </trkpt>
      <trkpt lat="34.241460" lon="-117.431840">
        <ele>769.036</ele>
        <time>2018-12-29T05:31:53Z</time>
      </trkpt>
      <trkpt lat="34.241400" lon="-117.431750">
        <ele>769.217</ele>
        <time>2018-12-29T05:32:13Z</time>
      </trkpt>
      <trkpt lat="34.240090" lon="-117.430030">
        <ele>757.718</ele>
        <time>2018-12-29T05:32:33Z</time>
      </trkpt>
      <trkpt lat="34.239300" lon="-117.428980">
        <ele>748.508</ele>
        <time>2018-12-29T05:32:53Z</time>
      </trkpt>
      <trkpt lat="34.238650" lon="-117.428140">
        <ele>744.776</ele>
        <time>2018-12-29T05:33:13Z</time>
      </trkpt>
      <trkpt lat="34.236790" lon="-117.425690">
        <ele>731.144</ele>
        <time>2018-12-29T05:33:33Z</time>
      </trkpt>
      <trkpt lat="34.236530" lon="-117.425340">
        <ele>725.739</ele>
        <time>2018-12-29T05:33:53Z</time>
      </trkpt>
      <trkpt lat="34.236520" lon="-117.425320">
        <ele>725.660</ele>
        <time>2018-12-29T05:34:13Z</time>
      </trkpt>
      <trkpt lat="34.236250" lon="-117.424970">
        <ele>722.435</ele>
        <time>2018-12-29T05:34:33Z</time>
      </trkpt>
      <trkpt lat="34.235480" lon="-117.424010">
        <ele>720.466</ele>
        <time>2018-12-29T05:34:53Z</time>
      </trkpt>
      <trkpt lat="34.235480" lon="-117.424014">
        <ele>720.489</ele>
        <time>2018-12-29T05:35:13Z</time>
      </trkpt>
      <trkpt lat="34.235430" lon="-117.423850">
        <ele>720.539</ele>
        <time>2018-12-29T05:35:33Z</time>
      </trkpt>
      <trkpt lat="34.235400" lon="-117.423770">
        <ele>720.524</ele>
        <time>2018-12-29T05:35:53Z</time>
      </trkpt>
      <trkpt lat="34.235360" lon="-117.423700">
        <ele>720.604</ele>
        <time>2018-12-29T05:36:13Z</time>
      </trkpt>
      <trkpt lat="34.235300" lon="-117.423610">
        <ele>720.614</ele>
        <time>2018-12-29T05:36:33Z</time>
      </trkpt>
      <trkpt lat="34.235020" lon="-117.423250">
        <ele>719.808</ele>
        <time>2018-12-29T05:36:53Z</time>
      </trkpt>
      <trkpt lat="34.234600" lon="-117.422690">
        <ele>719.955</ele>
        <time>2018-12-29T05:37:13Z</time>
      </trkpt>
      <trkpt lat="34.234300" lon="-117.422300">
        <ele>720.013</ele>
        <time>2018-12-29T05:37:33Z</time>
      </trkpt>
      <trkpt lat="34.234300" lon="-117.422290">
        <ele>720.078</ele>
        <time>2018-12-29T05:37:53Z</time>
      </trkpt>
      <trkpt lat="34.234090" lon="-117.422030">
        <ele>719.849</ele>
        <time>2018-12-29T05:38:13Z</time>
      </trkpt>
      <trkpt lat="34.233560" lon="-117.421370">
        <ele>718.084</ele>
        <time>2018-12-29T05:38:33Z</time>
      </trkpt>
      <trkpt lat="34.233320" lon="-117.421090">
        <ele>717.485</ele>
        <time>2018-12-29T05:38:53Z</time>
      </trkpt>
      <trkpt lat="34.233300" lon="-117.421060">
        <ele>717.218</ele>
        <time>2018-12-29T05:39:13Z</time>
      </trkpt>
      <trkpt lat="34.233230" lon="-117.420970">
        <ele>716.658</ele>
        <time>2018-12-29T05:39:33Z</time>
      </trkpt>
      <trkpt lat="34.232960" lon="-117.420640">
        <ele>710.127</ele>
        <time>2018-12-29T05:39:53Z</time>
      </trkpt>
      <trkpt lat="34.232670" lon="-117.420280">
        <ele>698.368</ele>
        <time>2018-12-29T05:40:13Z</time>
      </trkpt>
      <trkpt lat="34.232400" lon="-117.419940">
        <ele>696.014</ele>
        <time>2018-12-29T05:40:33Z</time>
      </trkpt>
      <trkpt lat="34.231950" lon="-117.419360">
        <ele>700.908</ele>
        <time>2018-12-29T05:40:53Z</time>
      </trkpt>
      <trkpt lat="34.231570" lon="-117.418890">
        <ele>701.415</ele>
        <time>2018-12-29T05:41:13Z</time>
      </trkpt>
      <trkpt lat="34.231250" lon="-117.418520">
        <ele>696.873</ele>
        <time>2018-12-29T05:41:33Z</time>
      </trkpt>
      <trkpt lat="34.230960" lon="-117.418200">
        <ele>695.968</ele>
        <time>2018-12-29T05:41:53Z</time>
      </trkpt>
      <trkpt lat="34.230720" lon="-117.417950">
        <ele>695.889</ele>
        <time>2018-12-29T05:42:13Z</time>
      </trkpt>
      <trkpt lat="34.230440" lon="-117.417660">
        <ele>696.184</ele>
        <time>2018-12-29T05:42:33Z</time>
      </trkpt>
      <trkpt lat="34.230080" lon="-117.417280">
        <ele>695.935</ele>
        <time>2018-12-29T05:42:53Z</time>
      </trkpt>
      <trkpt lat="34.229730" lon="-117.416880">
        <ele>691.798</ele>
        <time>2018-12-29T05:43:13Z</time>
      </trkpt>
      <trkpt lat="34.229510" lon="-117.416600">
        <ele>688.648</ele>
        <time>2018-12-29T05:43:33Z</time>
      </trkpt>
      <trkpt lat="34.229330" lon="-117.416360">
        <ele>686.651</ele>
        <time>2018-12-29T05:43:53Z</time>
      </trkpt>
      <trkpt lat="34.229160" lon="-117.416120">
        <ele>684.801</ele>
        <time>2018-12-29T05:44:13Z</time>
      </trkpt>
      <trkpt lat="34.228900" lon="-117.415750">
        <ele>682.511</ele>
        <time>2018-12-29T05:44:33Z</time>
      </trkpt>
      <trkpt lat="34.228670" lon="-117.415430">
        <ele>679.908</ele>
        <time>2018-12-29T05:44:53Z</time>
      </trkpt>
      <trkpt lat="34.228460" lon="-117.415110">
        <ele>677.148</ele>
        <time>2018-12-29T05:45:13Z</time>
      </trkpt>
      <trkpt lat="34.228080" lon="-117.414580">
        <ele>673.886</ele>
        <time>2018-12-29T05:45:33Z</time>
      </trkpt>
      <trkpt lat="34.227840" lon="-117.414230">
        <ele>673.651</ele>
        <time>2018-12-29T05:45:53Z</time>
      </trkpt>
      <trkpt lat="34.227550" lon="-117.413820">
        <ele>673.332</ele>
        <time>2018-12-29T05:46:13Z</time>
      </trkpt>
      <trkpt lat="34.227260" lon="-117.413390">
        <ele>670.777</ele>
        <time>2018-12-29T05:46:33Z</time>
      </trkpt>
      <trkpt lat="34.227040" lon="-117.413070">
        <ele>666.378</ele>
        <time>2018-12-29T05:46:53Z</time>
      </trkpt>
      <trkpt lat="34.226790" lon="-117.412710">
        <ele>662.251</ele>
        <time>2018-12-29T05:47:13Z</time>
      </trkpt>
      <trkpt lat="34.226630" lon="-117.412480">
        <ele>661.571</ele>
        <time>2018-12-29T05:47:33Z</time>
      </trkpt>
      <trkpt lat="34.226550" lon="-117.412380">
        <ele>661.253</ele>
        <time>2018-12-29T05:47:53Z</time>
      </trkpt>
      <trkpt lat="34.226530" lon="-117.412350">
        <ele>661.104</ele>
        <time>2018-12-29T05:48:13Z</time>
      </trkpt>
      <trkpt lat="34.226400" lon="-117.412260">
        <ele>660.314</ele>
        <time>2018-12-29T05:48:33Z</time>
      </trkpt>
      <trkpt lat="34.226160" lon="-117.411940">
        <ele>659.808</ele>
        <time>2018-12-29T05:48:53Z</time>
      </trkpt>
      <trkpt lat="34.225960" lon="-117.411720">
        <ele>659.618</ele>
        <time>2018-12-29T05:49:13Z</time>
      </trkpt>
      <trkpt lat="34.225630" lon="-117.411420">
        <ele>658.346</ele>
        <time>2018-12-29T05:49:33Z</time>
      </trkpt>
      <trkpt lat="34.225420" lon="-117.411240">
        <ele>659.241</ele>
        <time>2018-12-29T05:49:53Z</time>
      </trkpt>
      <trkpt lat="34.225170" lon="-117.411070">
        <ele>656.922</ele>
        <time>2018-12-29T05:50:13Z</time>
      </trkpt>
      <trkpt lat="34.224960" lon="-117.410920">
        <ele>655.157</ele>
        <time>2018-12-29T05:50:33Z</time>
      </trkpt>
      <trkpt lat="34.224800" lon="-117.410820">
        <ele>655.978</ele>
        <time>2018-12-29T05:50:53Z</time>
      </trkpt>
      <trkpt lat="34.224540" lon="-117.410700">
        <ele>658.961</ele>
        <time>2018-12-29T05:51:13Z</time>
      </trkpt>
      <trkpt lat="34.224290" lon="-117.410570">
        <ele>658.671</ele>
        <time>2018-12-29T05:51:33Z</time>
      </trkpt>
      <trkpt lat="34.224110" lon="-117.410490">
        <ele>658.668</ele>
        <time>2018-12-29T05:51:53Z</time>
      </trkpt>
      <trkpt lat="34.223850" lon="-117.410390">
        <ele>659.142</ele>
        <time>2018-12-29T05:52:13Z</time>
      </trkpt>
      <trkpt lat="34.223380" lon="-117.410260">
        <ele>658.226</ele>
        <time>2018-12-29T05:52:33Z</time>
      </trkpt>
      <trkpt lat="34.223040" lon="-117.410200">
        <ele>655.608</ele>
        <time>2018-12-29T05:52:53Z</time>
      </trkpt>
      <trkpt lat="34.222830" lon="-117.410180">
        <ele>654.139</ele>
        <time>2018-12-29T05:53:13Z</time>
      </trkpt>
      <trkpt lat="34.222670" lon="-117.410170">
        <ele>653.557</ele>
        <time>2018-12-29T05:53:33Z</time>
      </trkpt>
      <trkpt lat="34.222550" lon="-117.410170">
        <ele>652.772</ele>
        <time>2018-12-29T05:53:53Z</time>
      </trkpt>
      <trkpt lat="34.222470" lon="-117.410170">
        <ele>652.193</ele>
        <time>2018-12-29T05:54:13Z</time>
      </trkpt>
      <trkpt lat="34.222440" lon="-117.410170">
        <ele>651.948</ele>
        <time>2018-12-29T05:54:33Z</time>
      </trkpt>
      <trkpt lat="34.222200" lon="-117.410180">
        <ele>649.739</ele>
        <time>2018-12-29T05:54:53Z</time>
      </trkpt>
      <trkpt lat="34.222010" lon="-117.410200">
        <ele>647.092</ele>
        <time>2018-12-29T05:55:13Z</time>
      </trkpt>
      <trkpt lat="34.221830" lon="-117.410220">
        <ele>642.562</ele>
        <time>2018-12-29T05:55:33Z</time>
      </trkpt>
      <trkpt lat="34.221800" lon="-117.410220">
        <ele>641.885</ele>
        <time>2018-12-29T05:55:53Z</time>
      </trkpt>
      <trkpt lat="34.221090" lon="-117.410340">
        <ele>634.789</ele>
        <time>2018-12-29T05:56:13Z</time>
      </trkpt>
      <trkpt lat="34.220210" lon="-117.410530">
        <ele>635.617</ele>
        <time>2018-12-29T05:56:33Z</time>
      </trkpt>
      <trkpt lat="34.219910" lon="-117.410590">
        <ele>635.708</ele>
        <time>2018-12-29T05:56:53Z</time>
      </trkpt>
      <trkpt lat="34.219280" lon="-117.410750">
        <ele>635.671</ele>
        <time>2018-12-29T05:57:13Z</time>
      </trkpt>
      <trkpt lat="34.219284" lon="-117.410754">
        <ele>635.699</ele>
        <time>2018-12-29T05:57:33Z</time>
      </trkpt>
      <trkpt lat="34.219150" lon="-117.410780">
        <ele>635.574</ele>
        <time>2018-12-29T05:57:53Z</time>
      </trkpt>
      <trkpt lat="34.219050" lon="-117.410810">
        <ele>635.425</ele>
        <time>2018-12-29T05:58:13Z</time>
      </trkpt>
      <trkpt lat="34.218690" lon="-117.410890">
        <ele>634.810</ele>
        <time>2018-12-29T05:58:33Z</time>
      </trkpt>
      <trkpt lat="34.218340" lon="-117.410970">
        <ele>634.821</ele>
        <time>2018-12-29T05:58:53Z</time>
      </trkpt>
      <trkpt lat="34.218170" lon="-117.411010">
        <ele>634.844</ele>
        <time>2018-12-29T05:59:13Z</time>
      </trkpt>
      <trkpt lat="34.218030" lon="-117.411030">
        <ele>634.814</ele>
        <time>2018-12-29T05:59:33Z</time>
      </trkpt>
      <trkpt lat="34.217890" lon="-117.411060">
        <ele>634.866</ele>
        <time>2018-12-29T05:59:53Z</time>
      </trkpt>
      <trkpt lat="34.215590" lon="-117.411600">
        <ele>634.829</ele>
        <time>2018-12-29T06:00:13Z</time>
      </trkpt>
      <trkpt lat="34.215290" lon="-117.411680">
        <ele>634.421</ele>
        <time>2018-12-29T06:00:33Z</time>
      </trkpt>
      <trkpt lat="34.215210" lon="-117.411700">
        <ele>634.008</ele>
        <time>2018-12-29T06:00:53Z</time>
      </trkpt>
      <trkpt lat="34.214980" lon="-117.411750">
        <ele>631.479</ele>
        <time>2018-12-29T06:01:13Z</time>
      </trkpt>
      <trkpt lat="34.211580" lon="-117.412530">
        <ele>634.387</ele>
        <time>2018-12-29T06:01:33Z</time>
      </trkpt>
      <trkpt lat="34.210990" lon="-117.412670">
        <ele>635.842</ele>
        <time>2018-12-29T06:01:53Z</time>
      </trkpt>
      <trkpt lat="34.209920" lon="-117.412930">
        <ele>634.483</ele>
        <time>2018-12-29T06:02:13Z</time>
      </trkpt>
      <trkpt lat="34.208420" lon="-117.413260">
        <ele>634.178</ele>
        <time>2018-12-29T06:02:33Z</time>
      </trkpt>
      <trkpt lat="34.208110" lon="-117.413340">
        <ele>634.079</ele>
        <time>2018-12-29T06:02:53Z</time>
      </trkpt>
      <trkpt lat="34.207750" lon="-117.413440">
        <ele>633.792</ele>
        <time>2018-12-29T06:03:13Z</time>
      </trkpt>
      <trkpt lat="34.207220" lon="-117.413590">
        <ele>636.162</ele>
        <time>2018-12-29T06:03:33Z</time>
      </trkpt>
      <trkpt lat="34.206700" lon="-117.413740">
        <ele>634.021</ele>
        <time>2018-12-29T06:03:53Z</time>
      </trkpt>
      <trkpt lat="34.206250" lon="-117.413900">
        <ele>637.341</ele>
        <time>2018-12-29T06:04:13Z</time>
      </trkpt>
      <trkpt lat="34.205970" lon="-117.414000">
        <ele>634.105</ele>
        <time>2018-12-29T06:04:33Z</time>
      </trkpt>
      <trkpt lat="34.205460" lon="-117.414210">
        <ele>637.308</ele>
        <time>2018-12-29T06:04:53Z</time>
      </trkpt>
      <trkpt lat="34.205100" lon="-117.414360">
        <ele>636.285</ele>
        <time>2018-12-29T06:05:13Z</time>
      </trkpt>
      <trkpt lat="34.204430" lon="-117.414650">
        <ele>637.073</ele>
        <time>2018-12-29T06:05:33Z</time>
      </trkpt>
      <trkpt lat="34.203700" lon="-117.415010">
        <ele>634.758</ele>
        <time>2018-12-29T06:05:53Z</time>
      </trkpt>
      <trkpt lat="34.203070" lon="-117.415370">
        <ele>624.919</ele>
        <time>2018-12-29T06:06:13Z</time>
      </trkpt>
      <trkpt lat="34.202820" lon="-117.415510">
        <ele>622.694</ele>
        <time>2018-12-29T06:06:33Z</time>
      </trkpt>
      <trkpt lat="34.202750" lon="-117.415560">
        <ele>622.435</ele>
        <time>2018-12-29T06:06:53Z</time>
      </trkpt>
      <trkpt lat="34.202570" lon="-117.415660">
        <ele>622.258</ele>
        <time>2018-12-29T06:07:13Z</time>
      </trkpt>
      <trkpt lat="34.201990" lon="-117.415980">
        <ele>622.538</ele>
        <time>2018-12-29T06:07:33Z</time>
      </trkpt>
      <trkpt lat="34.200700" lon="-117.416690">
        <ele>613.633</ele>
        <time>2018-12-29T06:07:53Z</time>
      </trkpt>
      <trkpt lat="34.200160" lon="-117.416980">
        <ele>613.123</ele>
        <time>2018-12-29T06:08:13Z</time>
      </trkpt>
      <trkpt lat="34.199620" lon="-117.417300">
        <ele>613.015</ele>
        <time>2018-12-29T06:08:33Z</time>
      </trkpt>
      <trkpt lat="34.199130" lon="-117.417580">
        <ele>611.408</ele>
        <time>2018-12-29T06:08:53Z</time>
      </trkpt>
      <trkpt lat="34.198830" lon="-117.417750">
        <ele>610.426</ele>
        <time>2018-12-29T06:09:13Z</time>
      </trkpt>
      <trkpt lat="34.198420" lon="-117.417970">
        <ele>610.034</ele>
        <time>2018-12-29T06:09:33Z</time>
      </trkpt>
      <trkpt lat="34.197440" lon="-117.418520">
        <ele>606.189</ele>
        <time>2018-12-29T06:09:53Z</time>
      </trkpt>
      <trkpt lat="34.196630" lon="-117.418970">
        <ele>602.720</ele>
        <time>2018-12-29T06:10:13Z</time>
      </trkpt>
      <trkpt lat="34.196100" lon="-117.419280">
        <ele>601.965</ele>
        <time>2018-12-29T06:10:33Z</time>
      </trkpt>
      <trkpt lat="34.196070" lon="-117.419300">
        <ele>601.956</ele>
        <time>2018-12-29T06:10:53Z</time>
      </trkpt>
      <trkpt lat="34.195790" lon="-117.419490">
        <ele>602.249</ele>
        <time>2018-12-29T06:11:13Z</time>
      </trkpt>
      <trkpt lat="34.195290" lon="-117.419850">
        <ele>601.019</ele>
        <time>2018-12-29T06:11:33Z</time>
      </trkpt>
      <trkpt lat="34.194860" lon="-117.420180">
        <ele>599.971</ele>
        <time>2018-12-29T06:11:53Z</time>
      </trkpt>
      <trkpt lat="34.194620" lon="-117.420380">
        <ele>599.141</ele>
        <time>2018-12-29T06:12:13Z</time>
      </trkpt>
      <trkpt lat="34.194120" lon="-117.420870">
        <ele>598.115</ele>
        <time>2018-12-29T06:12:33Z</time>
      </trkpt>
      <trkpt lat="34.193810" lon="-117.421220">
        <ele>597.608</ele>
        <time>2018-12-29T06:12:53Z</time>
      </trkpt>
      <trkpt lat="34.193610" lon="-117.421460">
        <ele>597.560</ele>
        <time>2018-12-29T06:13:13Z</time>
      </trkpt>
      <trkpt lat="34.193500" lon="-117.421600">
        <ele>597.698</ele>
        <time>2018-12-29T06:13:33Z</time>
      </trkpt>
      <trkpt lat="34.193240" lon="-117.421910">
        <ele>598.623</ele>
        <time>2018-12-29T06:13:53Z</time>
      </trkpt>
      <trkpt lat="34.192920" lon="-117.422340">
        <ele>600.764</ele>
        <time>2018-12-29T06:14:13Z</time>
      </trkpt>
      <trkpt lat="34.192600" lon="-117.422800">
        <ele>601.029</ele>
        <time>2018-12-29T06:14:33Z</time>
      </trkpt>
      <trkpt lat="34.192360" lon="-117.423140">
        <ele>601.130</ele>
        <time>2018-12-29T06:14:53Z</time>
      </trkpt>
      <trkpt lat="34.192010" lon="-117.423660">
        <ele>602.913</ele>
        <time>2018-12-29T06:15:13Z</time>
      </trkpt>
      <trkpt lat="34.191560" lon="-117.424300">
        <ele>606.073</ele>
        <time>2018-12-29T06:15:33Z</time>
      </trkpt>
      <trkpt lat="34.191210" lon="-117.424800">
        <ele>608.867</ele>
        <time>2018-12-29T06:15:53Z</time>
      </trkpt>
      <trkpt lat="34.190620" lon="-117.425670">
        <ele>611.481</ele>
        <time>2018-12-29T06:16:13Z</time>
      </trkpt>
      <trkpt lat="34.189800" lon="-117.426840">
        <ele>614.119</ele>
        <time>2018-12-29T06:16:33Z</time>
      </trkpt>
      <trkpt lat="34.188150" lon="-117.429240">
        <ele>615.808</ele>
        <time>2018-12-29T06:16:53Z</time>
      </trkpt>
      <trkpt lat="34.187820" lon="-117.429730">
        <ele>613.919</ele>
        <time>2018-12-29T06:17:13Z</time>
      </trkpt>
      <trkpt lat="34.187740" lon="-117.429840">
        <ele>613.967</ele>
        <time>2018-12-29T06:17:33Z</time>
      </trkpt>
      <trkpt lat="34.187630" lon="-117.430000">
        <ele>614.082</ele>
        <time>2018-12-29T06:17:53Z</time>
      </trkpt>
      <trkpt lat="34.187420" lon="-117.430300">
        <ele>614.293</ele>
        <time>2018-12-29T06:18:13Z</time>
      </trkpt>
      <trkpt lat="34.186330" lon="-117.431740">
        <ele>612.698</ele>
        <time>2018-12-29T06:18:33Z</time>
      </trkpt>
      <trkpt lat="34.186040" lon="-117.432110">
        <ele>612.669</ele>
        <time>2018-12-29T06:18:53Z</time>
      </trkpt>
      <trkpt lat="34.185490" lon="-117.432780">
        <ele>613.032</ele>
        <time>2018-12-29T06:19:13Z</time>
      </trkpt>
      <trkpt lat="34.184660" lon="-117.433810">
        <ele>613.252</ele>
        <time>2018-12-29T06:19:33Z</time>
      </trkpt>
      <trkpt lat="34.184630" lon="-117.433840">
        <ele>613.228</ele>
        <time>2018-12-29T06:19:53Z</time>
      </trkpt>
      <trkpt lat="34.184390" lon="-117.434110">
        <ele>613.089</ele>
        <time>2018-12-29T06:20:13Z</time>
      </trkpt>
      <trkpt lat="34.183870" lon="-117.434650">
        <ele>612.817</ele>
        <time>2018-12-29T06:20:33Z</time>
      </trkpt>
      <trkpt lat="34.182100" lon="-117.436630">
        <ele>610.808</ele>
        <time>2018-12-29T06:20:53Z</time>
      </trkpt>
      <trkpt lat="34.181860" lon="-117.436900">
        <ele>610.215</ele>
        <time>2018-12-29T06:21:13Z</time>
      </trkpt>
      <trkpt lat="34.181600" lon="-117.437170">
        <ele>609.543</ele>
        <time>2018-12-29T06:21:33Z</time>
      </trkpt>
      <trkpt lat="34.181310" lon="-117.437480">
        <ele>608.778</ele>
        <time>2018-12-29T06:21:53Z</time>
      </trkpt>
      <trkpt lat="34.180980" lon="-117.437830">
        <ele>607.949</ele>
        <time>2018-12-29T06:22:13Z</time>
      </trkpt>
      <trkpt lat="34.180690" lon="-117.438140">
        <ele>607.434</ele>
        <time>2018-12-29T06:22:33Z</time>
      </trkpt>
      <trkpt lat="34.180120" lon="-117.438800">
        <ele>607.265</ele>
        <time>2018-12-29T06:22:53Z</time>
      </trkpt>
      <trkpt lat="34.179510" lon="-117.439560">
        <ele>606.288</ele>
        <time>2018-12-29T06:23:13Z</time>
      </trkpt>
      <trkpt lat="34.179360" lon="-117.439740">
        <ele>605.678</ele>
        <time>2018-12-29T06:23:33Z</time>
      </trkpt>
      <trkpt lat="34.178990" lon="-117.440250">
        <ele>604.226</ele>
        <time>2018-12-29T06:23:53Z</time>
      </trkpt>
      <trkpt lat="34.178660" lon="-117.440720">
        <ele>603.147</ele>
        <time>2018-12-29T06:24:13Z</time>
      </trkpt>
      <trkpt lat="34.178600" lon="-117.440790">
        <ele>602.911</ele>
        <time>2018-12-29T06:24:33Z</time>
      </trkpt>
      <trkpt lat="34.178370" lon="-117.441130">
        <ele>602.208</ele>
        <time>2018-12-29T06:24:53Z</time>
      </trkpt>
      <trkpt lat="34.178260" lon="-117.441300">
        <ele>601.895</ele>
        <time>2018-12-29T06:25:13Z</time>
      </trkpt>
      <trkpt lat="34.178090" lon="-117.441580">
        <ele>601.243</ele>
        <time>2018-12-29T06:25:33Z</time>
      </trkpt>
      <trkpt lat="34.177810" lon="-117.442030">
        <ele>600.148</ele>
        <time>2018-12-29T06:25:53Z</time>
      </trkpt>
      <trkpt lat="34.177440" lon="-117.442670">
        <ele>598.799</ele>
        <time>2018-12-29T06:26:13Z</time>
      </trkpt>
      <trkpt lat="34.177000" lon="-117.443430">
        <ele>596.414</ele>
        <time>2018-12-29T06:26:33Z</time>
      </trkpt>
      <trkpt lat="34.175830" lon="-117.445520">
        <ele>589.825</ele>
        <time>2018-12-29T06:26:53Z</time>
      </trkpt>
      <trkpt lat="34.174320" lon="-117.448200">
        <ele>581.138</ele>
        <time>2018-12-29T06:27:13Z</time>
      </trkpt>
      <trkpt lat="34.172560" lon="-117.451330">
        <ele>571.378</ele>
        <time>2018-12-29T06:27:33Z</time>
      </trkpt>
      <trkpt lat="34.172370" lon="-117.451670">
        <ele>570.555</ele>
        <time>2018-12-29T06:27:53Z</time>
      </trkpt>
      <trkpt lat="34.171960" lon="-117.452390">
        <ele>568.907</ele>
        <time>2018-12-29T06:28:13Z</time>
      </trkpt>
      <trkpt lat="34.171570" lon="-117.453060">
        <ele>566.217</ele>
        <time>2018-12-29T06:28:33Z</time>
      </trkpt>
      <trkpt lat="34.171210" lon="-117.453650">
        <ele>563.708</ele>
        <time>2018-12-29T06:28:53Z</time>
      </trkpt>
      <trkpt lat="34.170670" lon="-117.454530">
        <ele>559.988</ele>
        <time>2018-12-29T06:29:13Z</time>
      </trkpt>
      <trkpt lat="34.169920" lon="-117.455580">
        <ele>554.866</ele>
        <time>2018-12-29T06:29:33Z</time>
      </trkpt>
      <trkpt lat="34.169500" lon="-117.456140">
        <ele>552.441</ele>
        <time>2018-12-29T06:29:53Z</time>
      </trkpt>
      <trkpt lat="34.168980" lon="-117.456820">
        <ele>549.642</ele>
        <time>2018-12-29T06:30:13Z</time>
      </trkpt>
      <trkpt lat="34.168260" lon="-117.457690">
        <ele>545.647</ele>
        <time>2018-12-29T06:30:33Z</time>
      </trkpt>
      <trkpt lat="34.168250" lon="-117.457690">
        <ele>545.588</ele>
        <time>2018-12-29T06:30:53Z</time>
      </trkpt>
      <trkpt lat="34.165310" lon="-117.461240">
        <ele>530.791</ele>
        <time>2018-12-29T06:31:13Z</time>
      </trkpt>
      <trkpt lat="34.165000" lon="-117.461630">
        <ele>529.341</ele>
        <time>2018-12-29T06:31:33Z</time>
      </trkpt>
      <trkpt lat="34.164840" lon="-117.461820">
        <ele>528.684</ele>
        <time>2018-12-29T06:31:53Z</time>
      </trkpt>
      <trkpt lat="34.161540" lon="-117.465820">
        <ele>512.707</ele>
        <time>2018-12-29T06:32:13Z</time>
      </trkpt>
      <trkpt lat="34.160500" lon="-117.467060">
        <ele>508.517</ele>
        <time>2018-12-29T06:32:33Z</time>
      </trkpt>
      <trkpt lat="34.158170" lon="-117.469880">
        <ele>498.708</ele>
        <time>2018-12-29T06:32:53Z</time>
      </trkpt>
      <trkpt lat="34.154020" lon="-117.474890">
        <ele>481.471</ele>
        <time>2018-12-29T06:33:13Z</time>
      </trkpt>
      <trkpt lat="34.150650" lon="-117.478950">
        <ele>468.489</ele>
        <time>2018-12-29T06:33:33Z</time>
      </trkpt>
      <trkpt lat="34.150510" lon="-117.479120">
        <ele>467.914</ele>
        <time>2018-12-29T06:33:53Z</time>
      </trkpt>
      <trkpt lat="34.149530" lon="-117.480330">
        <ele>465.095</ele>
        <time>2018-12-29T06:34:13Z</time>
      </trkpt>
      <trkpt lat="34.148900" lon="-117.481100">
        <ele>462.850</ele>
        <time>2018-12-29T06:34:33Z</time>
      </trkpt>
      <trkpt lat="34.146420" lon="-117.484110">
        <ele>454.021</ele>
        <time>2018-12-29T06:34:53Z</time>
      </trkpt>
      <trkpt lat="34.145550" lon="-117.485200">
        <ele>451.284</ele>
        <time>2018-12-29T06:35:13Z</time>
      </trkpt>
      <trkpt lat="34.145020" lon="-117.485840">
        <ele>449.594</ele>
        <time>2018-12-29T06:35:33Z</time>
      </trkpt>
      <trkpt lat="34.143770" lon="-117.487350">
        <ele>445.464</ele>
        <time>2018-12-29T06:35:53Z</time>
      </trkpt>
      <trkpt lat="34.143130" lon="-117.488120">
        <ele>442.906</ele>
        <time>2018-12-29T06:36:13Z</time>
      </trkpt>
      <trkpt lat="34.142860" lon="-117.488420">
        <ele>442.016</ele>
        <time>2018-12-29T06:36:33Z</time>
      </trkpt>
      <trkpt lat="34.142590" lon="-117.488730">
        <ele>441.008</ele>
        <time>2018-12-29T06:36:53Z</time>
      </trkpt>
      <trkpt lat="34.141720" lon="-117.489720">
        <ele>438.759</ele>
        <time>2018-12-29T06:37:13Z</time>
      </trkpt>
      <trkpt lat="34.141721" lon="-117.489724">
        <ele>438.717</ele>
        <time>2018-12-29T06:37:33Z</time>
      </trkpt>
      <trkpt lat="34.141670" lon="-117.489900">
        <ele>438.432</ele>
        <time>2018-12-29T06:37:53Z</time>
      </trkpt>
      <trkpt lat="34.141660" lon="-117.489940">
        <ele>438.313</ele>
        <time>2018-12-29T06:38:13Z</time>
      </trkpt>
      <trkpt lat="34.141650" lon="-117.489960">
        <ele>438.378</ele>
        <time>2018-12-29T06:38:33Z</time>
      </trkpt>
      <trkpt lat="34.141640" lon="-117.489970">
        <ele>438.349</ele>
        <time>2018-12-29T06:38:53Z</time>
      </trkpt>
      <trkpt lat="34.141630" lon="-117.489990">
        <ele>438.382</ele>
        <time>2018-12-29T06:39:13Z</time>
      </trkpt>
      <trkpt lat="34.141620" lon="-117.490010">
        <ele>438.392</ele>
        <time>2018-12-29T06:39:33Z</time>
      </trkpt>
      <trkpt lat="34.141550" lon="-117.490130">
        <ele>438.144</ele>
        <time>2018-12-29T06:39:53Z</time>
      </trkpt>
      <trkpt lat="34.141170" lon="-117.490630">
        <ele>437.305</ele>
        <time>2018-12-29T06:40:13Z</time>
      </trkpt>
      <trkpt lat="34.140870" lon="-117.491030">
        <ele>436.715</ele>
        <time>2018-12-29T06:40:33Z</time>
      </trkpt>
      <trkpt lat="34.140050" lon="-117.492130">
        <ele>434.408</ele>
        <time>2018-12-29T06:40:53Z</time>
      </trkpt>
      <trkpt lat="34.139890" lon="-117.492370">
        <ele>434.017</ele>
        <time>2018-12-29T06:41:13Z</time>
      </trkpt>
      <trkpt lat="34.139810" lon="-117.492510">
        <ele>433.795</ele>
        <time>2018-12-29T06:41:33Z</time>
      </trkpt>
      <trkpt lat="34.139720" lon="-117.492640">
        <ele>433.470</ele>
        <time>2018-12-29T06:41:53Z</time>
      </trkpt>
      <trkpt lat="34.139510" lon="-117.492990">
        <ele>432.661</ele>
        <time>2018-12-29T06:42:13Z</time>
      </trkpt>
      <trkpt lat="34.139390" lon="-117.493230">
        <ele>432.336</ele>
        <time>2018-12-29T06:42:33Z</time>
      </trkpt>
      <trkpt lat="34.139200" lon="-117.493600">
        <ele>431.767</ele>
        <time>2018-12-29T06:42:53Z</time>
      </trkpt>
      <trkpt lat="34.139060" lon="-117.493900">
        <ele>431.360</ele>
        <time>2018-12-29T06:43:13Z</time>
      </trkpt>
      <trkpt lat="34.138770" lon="-117.494620">
        <ele>430.550</ele>
        <time>2018-12-29T06:43:33Z</time>
      </trkpt>
      <trkpt lat="34.138290" lon="-117.495820">
        <ele>428.129</ele>
        <time>2018-12-29T06:43:53Z</time>
      </trkpt>
      <trkpt lat="34.137870" lon="-117.496860">
        <ele>426.700</ele>
        <time>2018-12-29T06:44:13Z</time>
      </trkpt>
      <trkpt lat="34.137580" lon="-117.497580">
        <ele>427.120</ele>
        <time>2018-12-29T06:44:33Z</time>
      </trkpt>
      <trkpt lat="34.137410" lon="-117.498000">
        <ele>427.108</ele>
        <time>2018-12-29T06:44:53Z</time>
      </trkpt>
      <trkpt lat="34.137290" lon="-117.498320">
        <ele>427.195</ele>
        <time>2018-12-29T06:45:13Z</time>
      </trkpt>
      <trkpt lat="34.137200" lon="-117.498570">
        <ele>427.243</ele>
        <time>2018-12-29T06:45:33Z</time>
      </trkpt>
      <trkpt lat="34.137020" lon="-117.499170">
        <ele>427.968</ele>
        <time>2018-12-29T06:45:53Z</time>
      </trkpt>
      <trkpt lat="34.136880" lon="-117.499720">
        <ele>427.969</ele>
        <time>2018-12-29T06:46:13Z</time>
      </trkpt>
      <trkpt lat="34.136810" lon="-117.500060">
        <ele>427.764</ele>
        <time>2018-12-29T06:46:33Z</time>
      </trkpt>
      <trkpt lat="34.136760" lon="-117.500370">
        <ele>427.375</ele>
        <time>2018-12-29T06:46:53Z</time>
      </trkpt>
      <trkpt lat="34.136720" lon="-117.500660">
        <ele>426.858</ele>
        <time>2018-12-29T06:47:13Z</time>
      </trkpt>
      <trkpt lat="34.136650" lon="-117.501200">
        <ele>426.278</ele>
        <time>2018-12-29T06:47:33Z</time>
      </trkpt>
      <trkpt lat="34.136610" lon="-117.501960">
        <ele>425.817</ele>
        <time>2018-12-29T06:47:53Z</time>
      </trkpt>
      <trkpt lat="34.136610" lon="-117.502020">
        <ele>425.887</ele>
        <time>2018-12-29T06:48:13Z</time>
      </trkpt>
      <trkpt lat="34.136600" lon="-117.502050">
        <ele>425.815</ele>
        <time>2018-12-29T06:48:33Z</time>
      </trkpt>
      <trkpt lat="34.136600" lon="-117.502080">
        <ele>425.808</ele>
        <time>2018-12-29T06:48:53Z</time>
      </trkpt>
      <trkpt lat="34.136580" lon="-117.502130">
        <ele>425.694</ele>
        <time>2018-12-29T06:49:13Z</time>
      </trkpt>
      <trkpt lat="34.136510" lon="-117.502390">
        <ele>425.282</ele>
        <time>2018-12-29T06:49:33Z</time>
      </trkpt>
      <trkpt lat="34.136510" lon="-117.502910">
        <ele>424.697</ele>
        <time>2018-12-29T06:49:53Z</time>
      </trkpt>
      <trkpt lat="34.136500" lon="-117.504870">
        <ele>424.548</ele>
        <time>2018-12-29T06:50:13Z</time>
      </trkpt>
      <trkpt lat="34.136480" lon="-117.511650">
        <ele>431.373</ele>
        <time>2018-12-29T06:50:33Z</time>
      </trkpt>
      <trkpt lat="34.136480" lon="-117.512710">
        <ele>432.384</ele>
        <time>2018-12-29T06:50:53Z</time>
      </trkpt>
      <trkpt lat="34.136480" lon="-117.514190">
        <ele>433.927</ele>
        <time>2018-12-29T06:51:13Z</time>
      </trkpt>
      <trkpt lat="34.136480" lon="-117.514700">
        <ele>434.497</ele>
        <time>2018-12-29T06:51:33Z</time>
      </trkpt>
      <trkpt lat="34.136540" lon="-117.523020">
        <ele>440.051</ele>
        <time>2018-12-29T06:51:53Z</time>
      </trkpt>
      <trkpt lat="34.136580" lon="-117.530140">
        <ele>441.001</ele>
        <time>2018-12-29T06:52:13Z</time>
      </trkpt>
      <trkpt lat="34.136600" lon="-117.531110">
        <ele>442.111</ele>
        <time>2018-12-29T06:52:33Z</time>
      </trkpt>
      <trkpt lat="34.136620" lon="-117.534440">
        <ele>445.708</ele>
        <time>2018-12-29T06:52:53Z</time>
      </trkpt>
      <trkpt lat="34.136630" lon="-117.536240">
        <ele>448.548</ele>
        <time>2018-12-29T06:53:13Z</time>
      </trkpt>
      <trkpt lat="34.136630" lon="-117.536830">
        <ele>449.316</ele>
        <time>2018-12-29T06:53:33Z</time>
      </trkpt>
      <trkpt lat="34.136640" lon="-117.537420">
        <ele>449.861</ele>
        <time>2018-12-29T06:53:53Z</time>
      </trkpt>
      <trkpt lat="34.136660" lon="-117.540080">
        <ele>452.982</ele>
        <time>2018-12-29T06:54:13Z</time>
      </trkpt>
      <trkpt lat="34.136670" lon="-117.541360">
        <ele>454.357</ele>
        <time>2018-12-29T06:54:33Z</time>
      </trkpt>
      <trkpt lat="34.136680" lon="-117.541830">
        <ele>455.188</ele>
        <time>2018-12-29T06:54:53Z</time>
      </trkpt>
      <trkpt lat="34.136690" lon="-117.542270">
        <ele>455.951</ele>
        <time>2018-12-29T06:55:13Z</time>
      </trkpt>
      <trkpt lat="34.136690" lon="-117.542950">
        <ele>456.941</ele>
        <time>2018-12-29T06:55:33Z</time>
      </trkpt>
      <trkpt lat="34.136690" lon="-117.543800">
        <ele>457.829</ele>
        <time>2018-12-29T06:55:53Z</time>
      </trkpt>
      <trkpt lat="34.136700" lon="-117.544750">
        <ele>458.800</ele>
        <time>2018-12-29T06:56:13Z</time>
      </trkpt>
      <trkpt lat="34.136700" lon="-117.545270">
        <ele>459.320</ele>
        <time>2018-12-29T06:56:33Z</time>
      </trkpt>
      <trkpt lat="34.136700" lon="-117.545780">
        <ele>459.708</ele>
        <time>2018-12-29T06:56:53Z</time>
      </trkpt>
      <trkpt lat="34.136720" lon="-117.547660">
        <ele>461.855</ele>
        <time>2018-12-29T06:57:13Z</time>
      </trkpt>
      <trkpt lat="34.136720" lon="-117.548570">
        <ele>462.573</ele>
        <time>2018-12-29T06:57:33Z</time>
      </trkpt>
      <trkpt lat="34.136720" lon="-117.549400">
        <ele>462.968</ele>
        <time>2018-12-29T06:57:53Z</time>
      </trkpt>
      <trkpt lat="34.136710" lon="-117.549870">
        <ele>462.889</ele>
        <time>2018-12-29T06:58:13Z</time>
      </trkpt>
      <trkpt lat="34.136710" lon="-117.550520">
        <ele>462.974</ele>
        <time>2018-12-29T06:58:33Z</time>
      </trkpt>
      <trkpt lat="34.136690" lon="-117.552330">
        <ele>462.825</ele>
        <time>2018-12-29T06:58:53Z</time>
      </trkpt>
      <trkpt lat="34.136680" lon="-117.553500">
        <ele>463.488</ele>
        <time>2018-12-29T06:59:13Z</time>
      </trkpt>
      <trkpt lat="34.136680" lon="-117.554120">
        <ele>463.578</ele>
        <time>2018-12-29T06:59:33Z</time>
      </trkpt>
      <trkpt lat="34.136660" lon="-117.555720">
        <ele>462.848</ele>
        <time>2018-12-29T06:59:53Z</time>
      </trkpt>
      <trkpt lat="34.136660" lon="-117.556600">
        <ele>463.461</ele>
        <time>2018-12-29T07:00:13Z</time>
      </trkpt>
      <trkpt lat="34.136660" lon="-117.557240">
        <ele>463.717</ele>
        <time>2018-12-29T07:00:33Z</time>
      </trkpt>
      <trkpt lat="34.136660" lon="-117.557710">
        <ele>463.708</ele>
        <time>2018-12-29T07:00:53Z</time>
      </trkpt>
      <trkpt lat="34.136670" lon="-117.558440">
        <ele>463.787</ele>
        <time>2018-12-29T07:01:13Z</time>
      </trkpt>
      <trkpt lat="34.136670" lon="-117.558510">
        <ele>463.775</ele>
        <time>2018-12-29T07:01:33Z</time>
      </trkpt>
      <trkpt lat="34.136670" lon="-117.558610">
        <ele>463.760</ele>
        <time>2018-12-29T07:01:53Z</time>
      </trkpt>
      <trkpt lat="34.136670" lon="-117.558630">
        <ele>463.761</ele>
        <time>2018-12-29T07:02:13Z</time>
      </trkpt>
      <trkpt lat="34.136710" lon="-117.559920">
        <ele>463.686</ele>
        <time>2018-12-29T07:02:33Z</time>
      </trkpt>
      <trkpt lat="34.136730" lon="-117.560670">
        <ele>463.257</ele>
        <time>2018-12-29T07:02:53Z</time>
      </trkpt>
      <trkpt lat="34.136770" lon="-117.561880">
        <ele>462.850</ele>
        <time>2018-12-29T07:03:13Z</time>
      </trkpt>
      <trkpt lat="34.136800" lon="-117.563030">
        <ele>461.970</ele>
        <time>2018-12-29T07:03:33Z</time>
      </trkpt>
      <trkpt lat="34.136800" lon="-117.564890">
        <ele>460.093</ele>
        <time>2018-12-29T07:03:53Z</time>
      </trkpt>
      <trkpt lat="34.136800" lon="-117.565370">
        <ele>459.565</ele>
        <time>2018-12-29T07:04:13Z</time>
      </trkpt>
      <trkpt lat="34.136800" lon="-117.565540">
        <ele>459.321</ele>
        <time>2018-12-29T07:04:33Z</time>
      </trkpt>
      <trkpt lat="34.136790" lon="-117.566070">
        <ele>458.808</ele>
        <time>2018-12-29T07:04:53Z</time>
      </trkpt>
      <trkpt lat="34.136770" lon="-117.566430">
        <ele>458.542</ele>
        <time>2018-12-29T07:05:13Z</time>
      </trkpt>
      <trkpt lat="34.136740" lon="-117.567360">
        <ele>457.770</ele>
        <time>2018-12-29T07:05:33Z</time>
      </trkpt>
      <trkpt lat="34.136710" lon="-117.568110">
        <ele>457.365</ele>
        <time>2018-12-29T07:05:53Z</time>
      </trkpt>
      <trkpt lat="34.136690" lon="-117.568600">
        <ele>457.216</ele>
        <time>2018-12-29T07:06:13Z</time>
      </trkpt>
      <trkpt lat="34.136660" lon="-117.569100">
        <ele>457.281</ele>
        <time>2018-12-29T07:06:33Z</time>
      </trkpt>
      <trkpt lat="34.136620" lon="-117.569690">
        <ele>456.972</ele>
        <time>2018-12-29T07:06:53Z</time>
      </trkpt>
      <trkpt lat="34.136590" lon="-117.570100">
        <ele>456.735</ele>
        <time>2018-12-29T07:07:13Z</time>
      </trkpt>
      <trkpt lat="34.136570" lon="-117.570350">
        <ele>456.535</ele>
        <time>2018-12-29T07:07:33Z</time>
      </trkpt>
      <trkpt lat="34.136500" lon="-117.571310">
        <ele>456.139</ele>
        <time>2018-12-29T07:07:53Z</time>
      </trkpt>
      <trkpt lat="34.136470" lon="-117.571740">
        <ele>456.101</ele>
        <time>2018-12-29T07:08:13Z</time>
      </trkpt>
      <trkpt lat="34.136440" lon="-117.572020">
        <ele>456.021</ele>
        <time>2018-12-29T07:08:33Z</time>
      </trkpt>
      <trkpt lat="34.136400" lon="-117.572450">
        <ele>455.808</ele>
        <time>2018-12-29T07:08:53Z</time>
      </trkpt>
      <trkpt lat="34.136360" lon="-117.573030">
        <ele>455.456</ele>
        <time>2018-12-29T07:09:13Z</time>
      </trkpt>
      <trkpt lat="34.136270" lon="-117.574470">
        <ele>454.874</ele>
        <time>2018-12-29T07:09:33Z</time>
      </trkpt>
      <trkpt lat="34.136230" lon="-117.575060">
        <ele>454.869</ele>
        <time>2018-12-29T07:09:53Z</time>
      </trkpt>
      <trkpt lat="34.136210" lon="-117.575510">
        <ele>454.780</ele>
        <time>2018-12-29T07:10:13Z</time>
      </trkpt>
      <trkpt lat="34.136190" lon="-117.575880">
        <ele>454.655</ele>
        <time>2018-12-29T07:10:33Z</time>
      </trkpt>
      <trkpt lat="34.136160" lon="-117.576230">
        <ele>454.346</ele>
        <time>2018-12-29T07:10:53Z</time>
      </trkpt>
      <trkpt lat="34.136130" lon="-117.576740">
        <ele>453.899</ele>
        <time>2018-12-29T07:11:13Z</time>
      </trkpt>
      <trkpt lat="34.136080" lon="-117.577690">
        <ele>452.869</ele>
        <time>2018-12-29T07:11:33Z</time>
      </trkpt>
      <trkpt lat="34.136000" lon="-117.578910">
        <ele>453.115</ele>
        <time>2018-12-29T07:11:53Z</time>
      </trkpt>
      <trkpt lat="34.135930" lon="-117.580170">
        <ele>454.465</ele>
        <time>2018-12-29T07:12:13Z</time>
      </trkpt>
      <trkpt lat="34.135920" lon="-117.580410">
        <ele>454.711</ele>
        <time>2018-12-29T07:12:33Z</time>
      </trkpt>
      <trkpt lat="34.135880" lon="-117.581240">
        <ele>455.608</ele>
        <time>2018-12-29T07:12:53Z</time>
      </trkpt>
      <trkpt lat="34.135870" lon="-117.581590">
        <ele>456.024</ele>
        <time>2018-12-29T07:13:13Z</time>
      </trkpt>
      <trkpt lat="34.135840" lon="-117.582230">
        <ele>456.692</ele>
        <time>2018-12-29T07:13:33Z</time>
      </trkpt>
      <trkpt lat="34.135770" lon="-117.584800">
        <ele>459.337</ele>
        <time>2018-12-29T07:13:53Z</time>
      </trkpt>
      <trkpt lat="34.135720" lon="-117.585880">
        <ele>460.638</ele>
        <time>2018-12-29T07:14:13Z</time>
      </trkpt>
      <trkpt lat="34.135680" lon="-117.586670">
        <ele>462.343</ele>
        <time>2018-12-29T07:14:33Z</time>
      </trkpt>
      <trkpt lat="34.135650" lon="-117.587040">
        <ele>462.644</ele>
        <time>2018-12-29T07:14:53Z</time>
      </trkpt>
      <trkpt lat="34.135600" lon="-117.587690">
        <ele>462.877</ele>
        <time>2018-12-29T07:15:13Z</time>
      </trkpt>
      <trkpt lat="34.135600" lon="-117.587820">
        <ele>462.967</ele>
        <time>2018-12-29T07:15:33Z</time>
      </trkpt>
      <trkpt lat="34.135550" lon="-117.588380">
        <ele>463.598</ele>
        <time>2018-12-29T07:15:53Z</time>
      </trkpt>
      <trkpt lat="34.135510" lon="-117.588940">
        <ele>464.215</ele>
        <time>2018-12-29T07:16:13Z</time>
      </trkpt>
      <trkpt lat="34.135450" lon="-117.589830">
        <ele>465.726</ele>
        <time>2018-12-29T07:16:33Z</time>
      </trkpt>
      <trkpt lat="34.135400" lon="-117.590500">
        <ele>466.608</ele>
        <time>2018-12-29T07:16:53Z</time>
      </trkpt>
      <trkpt lat="34.135360" lon="-117.591050">
        <ele>466.722</ele>
        <time>2018-12-29T07:17:13Z</time>
      </trkpt>
      <trkpt lat="34.135300" lon="-117.591990">
        <ele>466.710</ele>
        <time>2018-12-29T07:17:33Z</time>
      </trkpt>
      <trkpt lat="34.135280" lon="-117.592600">
        <ele>466.785</ele>
        <time>2018-12-29T07:17:53Z</time>
      </trkpt>
      <trkpt lat="34.135260" lon="-117.593150">
        <ele>466.276</ele>
        <time>2018-12-29T07:18:13Z</time>
      </trkpt>
      <trkpt lat="34.135250" lon="-117.593490">
        <ele>466.021</ele>
        <time>2018-12-29T07:18:33Z</time>
      </trkpt>
      <trkpt lat="34.135250" lon="-117.593510">
        <ele>466.082</ele>
        <time>2018-12-29T07:18:53Z</time>
      </trkpt>
      <trkpt lat="34.135240" lon="-117.593770">
        <ele>466.015</ele>
        <time>2018-12-29T07:19:13Z</time>
      </trkpt>
      <trkpt lat="34.135230" lon="-117.594430">
        <ele>466.275</ele>
        <time>2018-12-29T07:19:33Z</time>
      </trkpt>
      <trkpt lat="34.135210" lon="-117.595360">
        <ele>466.522</ele>
        <time>2018-12-29T07:19:53Z</time>
      </trkpt>
      <trkpt lat="34.135190" lon="-117.597880">
        <ele>468.362</ele>
        <time>2018-12-29T07:20:13Z</time>
      </trkpt>
      <trkpt lat="34.135190" lon="-117.598300">
        <ele>468.508</ele>
        <time>2018-12-29T07:20:33Z</time>
      </trkpt>
      <trkpt lat="34.135190" lon="-117.598610">
        <ele>468.708</ele>
        <time>2018-12-29T07:20:53Z</time>
      </trkpt>
      <trkpt lat="34.135170" lon="-117.600380">
        <ele>470.055</ele>
        <time>2018-12-29T07:21:13Z</time>
      </trkpt>
      <trkpt lat="34.135150" lon="-117.602340">
        <ele>471.893</ele>
        <time>2018-12-29T07:21:33Z</time>
      </trkpt>
      <trkpt lat="34.135150" lon="-117.602790">
        <ele>472.268</ele>
        <time>2018-12-29T07:21:53Z</time>
      </trkpt>
      <trkpt lat="34.135110" lon="-117.606920">
        <ele>473.749</ele>
        <time>2018-12-29T07:22:13Z</time>
      </trkpt>
      <trkpt lat="34.135110" lon="-117.607270">
        <ele>474.064</ele>
        <time>2018-12-29T07:22:33Z</time>
      </trkpt>
      <trkpt lat="34.135100" lon="-117.608800">
        <ele>476.515</ele>
        <time>2018-12-29T07:22:53Z</time>
      </trkpt>
      <trkpt lat="34.135100" lon="-117.609070">
        <ele>477.138</ele>
        <time>2018-12-29T07:23:13Z</time>
      </trkpt>
      <trkpt lat="34.135070" lon="-117.613330">
        <ele>483.728</ele>
        <time>2018-12-29T07:23:33Z</time>
      </trkpt>
      <trkpt lat="34.135050" lon="-117.616220">
        <ele>488.535</ele>
        <time>2018-12-29T07:23:53Z</time>
      </trkpt>
      <trkpt lat="34.135040" lon="-117.616820">
        <ele>489.186</ele>
        <time>2018-12-29T07:24:13Z</time>
      </trkpt>
      <trkpt lat="34.135020" lon="-117.620870">
        <ele>493.714</ele>
        <time>2018-12-29T07:24:33Z</time>
      </trkpt>
      <trkpt lat="34.135020" lon="-117.621670">
        <ele>494.308</ele>
        <time>2018-12-29T07:24:53Z</time>
      </trkpt>
      <trkpt lat="34.135010" lon="-117.623260">
        <ele>495.566</ele>
        <time>2018-12-29T07:25:13Z</time>
      </trkpt>
      <trkpt lat="34.135000" lon="-117.624850">
        <ele>497.024</ele>
        <time>2018-12-29T07:25:33Z</time>
      </trkpt>
      <trkpt lat="34.134990" lon="-117.625190">
        <ele>497.349</ele>
        <time>2018-12-29T07:25:53Z</time>
      </trkpt>
      <trkpt lat="34.134990" lon="-117.625200">
        <ele>497.390</ele>
        <time>2018-12-29T07:26:13Z</time>
      </trkpt>
      <trkpt lat="34.134990" lon="-117.625280">
        <ele>497.415</ele>
        <time>2018-12-29T07:26:33Z</time>
      </trkpt>
      <trkpt lat="34.134990" lon="-117.625290">
        <ele>497.456</ele>
        <time>2018-12-29T07:26:53Z</time>
      </trkpt>
      <trkpt lat="34.134980" lon="-117.627280">
        <ele>499.549</ele>
        <time>2018-12-29T07:27:13Z</time>
      </trkpt>
      <trkpt lat="34.134970" lon="-117.629350">
        <ele>502.419</ele>
        <time>2018-12-29T07:27:33Z</time>
      </trkpt>
      <trkpt lat="34.134980" lon="-117.631100">
        <ele>504.094</ele>
        <time>2018-12-29T07:27:53Z</time>
      </trkpt>
      <trkpt lat="34.134980" lon="-117.631780">
        <ele>504.657</ele>
        <time>2018-12-29T07:28:13Z</time>
      </trkpt>
      <trkpt lat="34.134990" lon="-117.633160">
        <ele>506.222</ele>
        <time>2018-12-29T07:28:33Z</time>
      </trkpt>
      <trkpt lat="34.134980" lon="-117.634840">
        <ele>507.708</ele>
        <time>2018-12-29T07:28:53Z</time>
      </trkpt>
      <trkpt lat="34.134970" lon="-117.635550">
        <ele>508.152</ele>
        <time>2018-12-29T07:29:13Z</time>
      </trkpt>
      <trkpt lat="34.134970" lon="-117.635650">
        <ele>508.180</ele>
        <time>2018-12-29T07:29:33Z</time>
      </trkpt>
      <trkpt lat="34.134970" lon="-117.635710">
        <ele>508.165</ele>
        <time>2018-12-29T07:29:53Z</time>
      </trkpt>
      <trkpt lat="34.134970" lon="-117.636460">
        <ele>508.426</ele>
        <time>2018-12-29T07:30:13Z</time>
      </trkpt>
      <trkpt lat="34.134940" lon="-117.640370">
        <ele>506.371</ele>
        <time>2018-12-29T07:30:33Z</time>
      </trkpt>
      <trkpt lat="34.134940" lon="-117.640890">
        <ele>505.532</ele>
        <time>2018-12-29T07:30:53Z</time>
      </trkpt>
      <trkpt lat="34.134910" lon="-117.644130">
        <ele>500.355</ele>
        <time>2018-12-29T07:31:13Z</time>
      </trkpt>
      <trkpt lat="34.134900" lon="-117.645100">
        <ele>499.455</ele>
        <time>2018-12-29T07:31:33Z</time>
      </trkpt>
      <trkpt lat="34.134820" lon="-117.650550">
        <ele>500.135</ele>
        <time>2018-12-29T07:31:53Z</time>
      </trkpt>
      <trkpt lat="34.134820" lon="-117.651160">
        <ele>499.986</ele>
        <time>2018-12-29T07:32:13Z</time>
      </trkpt>
      <trkpt lat="34.134810" lon="-117.651440">
        <ele>499.814</ele>
        <time>2018-12-29T07:32:33Z</time>
      </trkpt>
      <trkpt lat="34.134800" lon="-117.652600">
        <ele>501.408</ele>
        <time>2018-12-29T07:32:53Z</time>
      </trkpt>
      <trkpt lat="34.134780" lon="-117.654170">
        <ele>504.526</ele>
        <time>2018-12-29T07:33:13Z</time>
      </trkpt>
      <trkpt lat="34.134760" lon="-117.656580">
        <ele>508.654</ele>
        <time>2018-12-29T07:33:33Z</time>
      </trkpt>
      <trkpt lat="34.134760" lon="-117.658830">
        <ele>512.129</ele>
        <time>2018-12-29T07:33:53Z</time>
      </trkpt>
      <trkpt lat="34.134770" lon="-117.660710">
        <ele>516.280</ele>
        <time>2018-12-29T07:34:13Z</time>
      </trkpt>
      <trkpt lat="34.134770" lon="-117.660920">
        <ele>516.555</ele>
        <time>2018-12-29T07:34:33Z</time>
      </trkpt>
      <trkpt lat="34.134770" lon="-117.662760">
        <ele>520.586</ele>
        <time>2018-12-29T07:34:53Z</time>
      </trkpt>
      <trkpt lat="34.134770" lon="-117.664800">
        <ele>524.479</ele>
        <time>2018-12-29T07:35:13Z</time>
      </trkpt>
      <trkpt lat="34.134780" lon="-117.665230">
        <ele>524.969</ele>
        <time>2018-12-29T07:35:33Z</time>
      </trkpt>
      <trkpt lat="34.134780" lon="-117.669010">
        <ele>531.994</ele>
        <time>2018-12-29T07:35:53Z</time>
      </trkpt>
      <trkpt lat="34.134790" lon="-117.670260">
        <ele>533.657</ele>
        <time>2018-12-29T07:36:13Z</time>
      </trkpt>
      <trkpt lat="34.134790" lon="-117.670410">
        <ele>533.722</ele>
        <time>2018-12-29T07:36:33Z</time>
      </trkpt>
      <trkpt lat="34.134790" lon="-117.670720">
        <ele>534.108</ele>
        <time>2018-12-29T07:36:53Z</time>
      </trkpt>
      <trkpt lat="34.134790" lon="-117.671670">
        <ele>534.922</ele>
        <time>2018-12-29T07:37:13Z</time>
      </trkpt>
      <trkpt lat="34.134790" lon="-117.672160">
        <ele>534.940</ele>
        <time>2018-12-29T07:37:33Z</time>
      </trkpt>
      <trkpt lat="34.134760" lon="-117.672760">
        <ele>534.645</ele>
        <time>2018-12-29T07:37:53Z</time>
      </trkpt>
      <trkpt lat="34.134740" lon="-117.673090">
        <ele>534.616</ele>
        <time>2018-12-29T07:38:13Z</time>
      </trkpt>
      <trkpt lat="34.134710" lon="-117.673430">
        <ele>534.581</ele>
        <time>2018-12-29T07:38:33Z</time>
      </trkpt>
      <trkpt lat="34.134650" lon="-117.674030">
        <ele>535.022</ele>
        <time>2018-12-29T07:38:53Z</time>
      </trkpt>
      <trkpt lat="34.134580" lon="-117.674530">
        <ele>535.075</ele>
        <time>2018-12-29T07:39:13Z</time>
      </trkpt>
      <trkpt lat="34.134470" lon="-117.675250">
        <ele>534.425</ele>
        <time>2018-12-29T07:39:33Z</time>
      </trkpt>
      <trkpt lat="34.134390" lon="-117.675650">
        <ele>533.722</ele>
        <time>2018-12-29T07:39:53Z</time>
      </trkpt>
      <trkpt lat="34.134260" lon="-117.676270">
        <ele>532.762</ele>
        <time>2018-12-29T07:40:13Z</time>
      </trkpt>
      <trkpt lat="34.134070" lon="-117.677040">
        <ele>531.408</ele>
        <time>2018-12-29T07:40:33Z</time>
      </trkpt>
      <trkpt lat="34.133850" lon="-117.677770">
        <ele>530.208</ele>
        <time>2018-12-29T07:40:53Z</time>
      </trkpt>
      <trkpt lat="34.133710" lon="-117.678230">
        <ele>529.785</ele>
        <time>2018-12-29T07:41:13Z</time>
      </trkpt>
      <trkpt lat="34.133540" lon="-117.678680">
        <ele>528.923</ele>
        <time>2018-12-29T07:41:33Z</time>
      </trkpt>
      <trkpt lat="34.133440" lon="-117.678980">
        <ele>528.588</ele>
        <time>2018-12-29T07:41:53Z</time>
      </trkpt>
      <trkpt lat="34.133080" lon="-117.679830">
        <ele>526.069</ele>
        <time>2018-12-29T07:42:13Z</time>
      </trkpt>
      <trkpt lat="34.132800" lon="-117.680430">
        <ele>523.934</ele>
        <time>2018-12-29T07:42:33Z</time>
      </trkpt>
      <trkpt lat="34.132660" lon="-117.680700">
        <ele>522.895</ele>
        <time>2018-12-29T07:42:53Z</time>
      </trkpt>
      <trkpt lat="34.132510" lon="-117.680980">
        <ele>521.338</ele>
        <time>2018-12-29T07:43:13Z</time>
      </trkpt>
      <trkpt lat="34.132440" lon="-117.681120">
        <ele>520.318</ele>
        <time>2018-12-29T07:43:33Z</time>
      </trkpt>
      <trkpt lat="34.132280" lon="-117.681430">
        <ele>516.874</ele>
        <time>2018-12-29T07:43:53Z</time>
      </trkpt>
      <trkpt lat="34.132150" lon="-117.681640">
        <ele>514.156</ele>
        <time>2018-12-29T07:44:13Z</time>
      </trkpt>
      <trkpt lat="34.131930" lon="-117.682020">
        <ele>512.521</ele>
        <time>2018-12-29T07:44:33Z</time>
      </trkpt>
      <trkpt lat="34.131500" lon="-117.682670">
        <ele>512.308</ele>
        <time>2018-12-29T07:44:53Z</time>
      </trkpt>
      <trkpt lat="34.130980" lon="-117.683400">
        <ele>512.910</ele>
        <time>2018-12-29T07:45:13Z</time>
      </trkpt>
      <trkpt lat="34.130130" lon="-117.684600">
        <ele>512.748</ele>
        <time>2018-12-29T07:45:33Z</time>
      </trkpt>
      <trkpt lat="34.129690" lon="-117.685230">
        <ele>510.973</ele>
        <time>2018-12-29T07:45:53Z</time>
      </trkpt>
      <trkpt lat="34.128970" lon="-117.686250">
        <ele>506.594</ele>
        <time>2018-12-29T07:46:13Z</time>
      </trkpt>
      <trkpt lat="34.128570" lon="-117.686830">
        <ele>503.939</ele>
        <time>2018-12-29T07:46:33Z</time>
      </trkpt>
      <trkpt lat="34.128220" lon="-117.687320">
        <ele>501.790</ele>
        <time>2018-12-29T07:46:53Z</time>
      </trkpt>
      <trkpt lat="34.127780" lon="-117.687940">
        <ele>500.123</ele>
        <time>2018-12-29T07:47:13Z</time>
      </trkpt>
      <trkpt lat="34.127430" lon="-117.688430">
        <ele>498.453</ele>
        <time>2018-12-29T07:47:33Z</time>
      </trkpt>
      <trkpt lat="34.127070" lon="-117.688940">
        <ele>496.644</ele>
        <time>2018-12-29T07:47:53Z</time>
      </trkpt>
      <trkpt lat="34.126430" lon="-117.689850">
        <ele>493.305</ele>
        <time>2018-12-29T07:48:13Z</time>
      </trkpt>
      <trkpt lat="34.125560" lon="-117.691070">
        <ele>487.815</ele>
        <time>2018-12-29T07:48:33Z</time>
      </trkpt>
      <trkpt lat="34.124980" lon="-117.691900">
        <ele>484.608</ele>
        <time>2018-12-29T07:48:53Z</time>
      </trkpt>
      <trkpt lat="34.124710" lon="-117.692270">
        <ele>482.977</ele>
        <time>2018-12-29T07:49:13Z</time>
      </trkpt>
      <trkpt lat="34.124430" lon="-117.692650">
        <ele>481.155</ele>
        <time>2018-12-29T07:49:33Z</time>
      </trkpt>
      <trkpt lat="34.124090" lon="-117.693110">
        <ele>475.480</ele>
        <time>2018-12-29T07:49:53Z</time>
      </trkpt>
      <trkpt lat="34.123110" lon="-117.694450">
        <ele>459.431</ele>
        <time>2018-12-29T07:50:13Z</time>
      </trkpt>
      <trkpt lat="34.122870" lon="-117.694780">
        <ele>456.516</ele>
        <time>2018-12-29T07:50:33Z</time>
      </trkpt>
      <trkpt lat="34.122520" lon="-117.695270">
        <ele>454.217</ele>
        <time>2018-12-29T07:50:53Z</time>
      </trkpt>
      <trkpt lat="34.122460" lon="-117.695360">
        <ele>453.880</ele>
        <time>2018-12-29T07:51:13Z</time>
      </trkpt>
      <trkpt lat="34.122200" lon="-117.695730">
        <ele>452.370</ele>
        <time>2018-12-29T07:51:33Z</time>
      </trkpt>
      <trkpt lat="34.122000" lon="-117.696020">
        <ele>457.751</ele>
        <time>2018-12-29T07:51:53Z</time>
      </trkpt>
      <trkpt lat="34.121810" lon="-117.696290">
        <ele>463.101</ele>
        <time>2018-12-29T07:52:13Z</time>
      </trkpt>
      <trkpt lat="34.121700" lon="-117.696470">
        <ele>463.411</ele>
        <time>2018-12-29T07:52:33Z</time>
      </trkpt>
      <trkpt lat="34.121610" lon="-117.696610">
        <ele>463.208</ele>
        <time>2018-12-29T07:52:53Z</time>
      </trkpt>
      <trkpt lat="34.121570" lon="-117.696690">
        <ele>463.288</ele>
        <time>2018-12-29T07:53:13Z</time>
      </trkpt>
      <trkpt lat="34.121500" lon="-117.696830">
        <ele>463.376</ele>
        <time>2018-12-29T07:53:33Z</time>
      </trkpt>
      <trkpt lat="34.121320" lon="-117.697180">
        <ele>462.021</ele>
        <time>2018-12-29T07:53:53Z</time>
      </trkpt>
      <trkpt lat="34.121160" lon="-117.697530">
        <ele>460.232</ele>
        <time>2018-12-29T07:54:13Z</time>
      </trkpt>
      <trkpt lat="34.120870" lon="-117.698240">
        <ele>459.637</ele>
        <time>2018-12-29T07:54:33Z</time>
      </trkpt>
      <trkpt lat="34.120830" lon="-117.698340">
        <ele>459.428</ele>
        <time>2018-12-29T07:54:53Z</time>
      </trkpt>
      <trkpt lat="34.120790" lon="-117.698470">
        <ele>459.221</ele>
        <time>2018-12-29T07:55:13Z</time>
      </trkpt>
      <trkpt lat="34.120740" lon="-117.698640">
        <ele>458.981</ele>
        <time>2018-12-29T07:55:33Z</time>
      </trkpt>
      <trkpt lat="34.120540" lon="-117.699320">
        <ele>457.247</ele>
        <time>2018-12-29T07:55:53Z</time>
      </trkpt>
      <trkpt lat="34.120470" lon="-117.699610">
        <ele>456.529</ele>
        <time>2018-12-29T07:56:13Z</time>
      </trkpt>
      <trkpt lat="34.120410" lon="-117.699920">
        <ele>455.721</ele>
        <time>2018-12-29T07:56:33Z</time>
      </trkpt>
      <trkpt lat="34.120360" lon="-117.700200">
        <ele>455.108</ele>
        <time>2018-12-29T07:56:53Z</time>
      </trkpt>
      <trkpt lat="34.120320" lon="-117.700490">
        <ele>454.557</ele>
        <time>2018-12-29T07:57:13Z</time>
      </trkpt>
      <trkpt lat="34.120280" lon="-117.700750">
        <ele>453.965</ele>
        <time>2018-12-29T07:57:33Z</time>
      </trkpt>
      <trkpt lat="34.120250" lon="-117.701040">
        <ele>453.310</ele>
        <time>2018-12-29T07:57:53Z</time>
      </trkpt>
      <trkpt lat="34.120230" lon="-117.701350">
        <ele>452.861</ele>
        <time>2018-12-29T07:58:13Z</time>
      </trkpt>
      <trkpt lat="34.120190" lon="-117.702020">
        <ele>451.786</ele>
        <time>2018-12-29T07:58:33Z</time>
      </trkpt>
      <trkpt lat="34.120120" lon="-117.703420">
        <ele>449.197</ele>
        <time>2018-12-29T07:58:53Z</time>
      </trkpt>
      <trkpt lat="34.120090" lon="-117.704260">
        <ele>447.870</ele>
        <time>2018-12-29T07:59:13Z</time>
      </trkpt>
      <trkpt lat="34.120070" lon="-117.704850">
        <ele>447.080</ele>
        <time>2018-12-29T07:59:33Z</time>
      </trkpt>
      <trkpt lat="34.120070" lon="-117.705360">
        <ele>446.263</ele>
        <time>2018-12-29T07:59:53Z</time>
      </trkpt>
      <trkpt lat="34.120080" lon="-117.706580">
        <ele>444.144</ele>
        <time>2018-12-29T08:00:13Z</time>
      </trkpt>
      <trkpt lat="34.120080" lon="-117.707140">
        <ele>443.118</ele>
        <time>2018-12-29T08:00:33Z</time>
      </trkpt>
      <trkpt lat="34.120090" lon="-117.707490">
        <ele>442.408</ele>
        <time>2018-12-29T08:00:53Z</time>
      </trkpt>
      <trkpt lat="34.120100" lon="-117.708750">
        <ele>440.299</ele>
        <time>2018-12-29T08:01:13Z</time>
      </trkpt>
      <trkpt lat="34.120120" lon="-117.710360">
        <ele>437.217</ele>
        <time>2018-12-29T08:01:33Z</time>
      </trkpt>
      <trkpt lat="34.120150" lon="-117.712470">
        <ele>434.272</ele>
        <time>2018-12-29T08:01:53Z</time>
      </trkpt>
      <trkpt lat="34.120160" lon="-117.713660">
        <ele>432.423</ele>
        <time>2018-12-29T08:02:13Z</time>
      </trkpt>
      <trkpt lat="34.120180" lon="-117.715690">
        <ele>429.388</ele>
        <time>2018-12-29T08:02:33Z</time>
      </trkpt>
      <trkpt lat="34.120200" lon="-117.718420">
        <ele>424.889</ele>
        <time>2018-12-29T08:02:53Z</time>
      </trkpt>
      <trkpt lat="34.120230" lon="-117.720150">
        <ele>422.372</ele>
        <time>2018-12-29T08:03:13Z</time>
      </trkpt>
      <trkpt lat="34.120240" lon="-117.720320">
        <ele>422.172</ele>
        <time>2018-12-29T08:03:33Z</time>
      </trkpt>
      <trkpt lat="34.120260" lon="-117.721720">
        <ele>419.761</ele>
        <time>2018-12-29T08:03:53Z</time>
      </trkpt>
      <trkpt lat="34.120280" lon="-117.722980">
        <ele>418.221</ele>
        <time>2018-12-29T08:04:13Z</time>
      </trkpt>
      <trkpt lat="34.120340" lon="-117.726500">
        <ele>412.313</ele>
        <time>2018-12-29T08:04:33Z</time>
      </trkpt>
      <trkpt lat="34.120370" lon="-117.728090">
        <ele>409.408</ele>
        <time>2018-12-29T08:04:53Z</time>
      </trkpt>
      <trkpt lat="34.120380" lon="-117.728960">
        <ele>408.059</ele>
        <time>2018-12-29T08:05:13Z</time>
      </trkpt>
      <trkpt lat="34.120390" lon="-117.729340">
        <ele>407.467</ele>
        <time>2018-12-29T08:05:33Z</time>
      </trkpt>
      <trkpt lat="34.120450" lon="-117.731580">
        <ele>403.432</ele>
        <time>2018-12-29T08:05:53Z</time>
      </trkpt>
      <trkpt lat="34.120460" lon="-117.731950">
        <ele>402.853</ele>
        <time>2018-12-29T08:06:13Z</time>
      </trkpt>
      <trkpt lat="34.120560" lon="-117.736330">
        <ele>394.818</ele>
        <time>2018-12-29T08:06:33Z</time>
      </trkpt>
      <trkpt lat="34.120570" lon="-117.736510">
        <ele>394.539</ele>
        <time>2018-12-29T08:06:53Z</time>
      </trkpt>
      <trkpt lat="34.120620" lon="-117.738850">
        <ele>389.782</ele>
        <time>2018-12-29T08:07:13Z</time>
      </trkpt>
      <trkpt lat="34.120650" lon="-117.739490">
        <ele>390.812</ele>
        <time>2018-12-29T08:07:33Z</time>
      </trkpt>
      <trkpt lat="34.120670" lon="-117.739920">
        <ele>396.273</ele>
        <time>2018-12-29T08:07:53Z</time>
      </trkpt>
      <trkpt lat="34.120680" lon="-117.740110">
        <ele>398.885</ele>
        <time>2018-12-29T08:08:13Z</time>
      </trkpt>
      <trkpt lat="34.120700" lon="-117.740430">
        <ele>400.913</ele>
        <time>2018-12-29T08:08:33Z</time>
      </trkpt>
      <trkpt lat="34.120730" lon="-117.740920">
        <ele>403.408</ele>
        <time>2018-12-29T08:08:53Z</time>
      </trkpt>
      <trkpt lat="34.120770" lon="-117.741600">
        <ele>406.290</ele>
        <time>2018-12-29T08:09:13Z</time>
      </trkpt>
      <trkpt lat="34.120790" lon="-117.742000">
        <ele>407.298</ele>
        <time>2018-12-29T08:09:33Z</time>
      </trkpt>
      <trkpt lat="34.120800" lon="-117.742310">
        <ele>407.963</ele>
        <time>2018-12-29T08:09:53Z</time>
      </trkpt>
      <trkpt lat="34.120810" lon="-117.742490">
        <ele>408.444</ele>
        <time>2018-12-29T08:10:13Z</time>
      </trkpt>
      <trkpt lat="34.120820" lon="-117.742830">
        <ele>409.289</ele>
        <time>2018-12-29T08:10:33Z</time>
      </trkpt>
      <trkpt lat="34.120820" lon="-117.743130">
        <ele>409.810</ele>
        <time>2018-12-29T08:10:53Z</time>
      </trkpt>
      <trkpt lat="34.120820" lon="-117.743420">
        <ele>409.763</ele>
        <time>2018-12-29T08:11:13Z</time>
      </trkpt>
      <trkpt lat="34.120810" lon="-117.743630">
        <ele>406.733</ele>
        <time>2018-12-29T08:11:33Z</time>
      </trkpt>
      <trkpt lat="34.120800" lon="-117.743850">
        <ele>404.171</ele>
        <time>2018-12-29T08:11:53Z</time>
      </trkpt>
      <trkpt lat="34.120790" lon="-117.744050">
        <ele>403.441</ele>
        <time>2018-12-29T08:12:13Z</time>
      </trkpt>
      <trkpt lat="34.120780" lon="-117.744220">
        <ele>402.915</ele>
        <time>2018-12-29T08:12:33Z</time>
      </trkpt>
      <trkpt lat="34.120770" lon="-117.744380">
        <ele>402.408</ele>
        <time>2018-12-29T08:12:53Z</time>
      </trkpt>
      <trkpt lat="34.120750" lon="-117.744690">
        <ele>401.380</ele>
        <time>2018-12-29T08:13:13Z</time>
      </trkpt>
      <trkpt lat="34.120730" lon="-117.744920">
        <ele>400.478</ele>
        <time>2018-12-29T08:13:33Z</time>
      </trkpt>
      <trkpt lat="34.120710" lon="-117.745160">
        <ele>399.263</ele>
        <time>2018-12-29T08:13:53Z</time>
      </trkpt>
      <trkpt lat="34.120690" lon="-117.745320">
        <ele>399.094</ele>
        <time>2018-12-29T08:14:13Z</time>
      </trkpt>
      <trkpt lat="34.120670" lon="-117.745470">
        <ele>398.799</ele>
        <time>2018-12-29T08:14:33Z</time>
      </trkpt>
      <trkpt lat="34.120630" lon="-117.745790">
        <ele>397.890</ele>
        <time>2018-12-29T08:14:53Z</time>
      </trkpt>
      <trkpt lat="34.120590" lon="-117.746090">
        <ele>396.773</ele>
        <time>2018-12-29T08:15:13Z</time>
      </trkpt>
      <trkpt lat="34.120540" lon="-117.746410">
        <ele>395.873</ele>
        <time>2018-12-29T08:15:33Z</time>
      </trkpt>
      <trkpt lat="34.120480" lon="-117.746730">
        <ele>395.871</ele>
        <time>2018-12-29T08:15:53Z</time>
      </trkpt>
      <trkpt lat="34.120380" lon="-117.747220">
        <ele>396.141</ele>
        <time>2018-12-29T08:16:13Z</time>
      </trkpt>
      <trkpt lat="34.120180" lon="-117.748120">
        <ele>392.915</ele>
        <time>2018-12-29T08:16:33Z</time>
      </trkpt>
      <trkpt lat="34.119990" lon="-117.749000">
        <ele>389.708</ele>
        <time>2018-12-29T08:16:53Z</time>
      </trkpt>
      <trkpt lat="34.119920" lon="-117.749320">
        <ele>389.480</ele>
        <time>2018-12-29T08:17:13Z</time>
      </trkpt>
      <trkpt lat="34.119880" lon="-117.749550">
        <ele>389.338</ele>
        <time>2018-12-29T08:17:33Z</time>
      </trkpt>
      <trkpt lat="34.119860" lon="-117.749680">
        <ele>389.243</ele>
        <time>2018-12-29T08:17:53Z</time>
      </trkpt>
      <trkpt lat="34.119800" lon="-117.750030">
        <ele>388.564</ele>
        <time>2018-12-29T08:18:13Z</time>
      </trkpt>
      <trkpt lat="34.119750" lon="-117.750390">
        <ele>387.259</ele>
        <time>2018-12-29T08:18:33Z</time>
      </trkpt>
      <trkpt lat="34.119720" lon="-117.750640">
        <ele>387.080</ele>
        <time>2018-12-29T08:18:53Z</time>
      </trkpt>
      <trkpt lat="34.119690" lon="-117.750950">
        <ele>387.593</ele>
        <time>2018-12-29T08:19:13Z</time>
      </trkpt>
      <trkpt lat="34.119660" lon="-117.751210">
        <ele>388.543</ele>
        <time>2018-12-29T08:19:33Z</time>
      </trkpt>
      <trkpt lat="34.119620" lon="-117.751680">
        <ele>388.245</ele>
        <time>2018-12-29T08:19:53Z</time>
      </trkpt>
      <trkpt lat="34.119600" lon="-117.751990">
        <ele>385.247</ele>
        <time>2018-12-29T08:20:13Z</time>
      </trkpt>
      <trkpt lat="34.119590" lon="-117.752380">
        <ele>381.011</ele>
        <time>2018-12-29T08:20:33Z</time>
      </trkpt>
      <trkpt lat="34.119580" lon="-117.752610">
        <ele>379.308</ele>
        <time>2018-12-29T08:20:53Z</time>
      </trkpt>
      <trkpt lat="34.119580" lon="-117.752900">
        <ele>378.037</ele>
        <time>2018-12-29T08:21:13Z</time>
      </trkpt>
      <trkpt lat="34.119580" lon="-117.753270">
        <ele>378.445</ele>
        <time>2018-12-29T08:21:33Z</time>
      </trkpt>
      <trkpt lat="34.119600" lon="-117.754050">
        <ele>376.720</ele>
        <time>2018-12-29T08:21:53Z</time>
      </trkpt>
      <trkpt lat="34.119610" lon="-117.754490">
        <ele>375.651</ele>
        <time>2018-12-29T08:22:13Z</time>
      </trkpt>
      <trkpt lat="34.119630" lon="-117.755000">
        <ele>374.056</ele>
        <time>2018-12-29T08:22:33Z</time>
      </trkpt>
      <trkpt lat="34.119650" lon="-117.755800">
        <ele>371.027</ele>
        <time>2018-12-29T08:22:53Z</time>
      </trkpt>
      <trkpt lat="34.119670" lon="-117.756550">
        <ele>369.450</ele>
        <time>2018-12-29T08:23:13Z</time>
      </trkpt>
      <trkpt lat="34.119700" lon="-117.757960">
        <ele>365.970</ele>
        <time>2018-12-29T08:23:33Z</time>
      </trkpt>
      <trkpt lat="34.119720" lon="-117.758630">
        <ele>363.731</ele>
        <time>2018-12-29T08:23:53Z</time>
      </trkpt>
      <trkpt lat="34.119780" lon="-117.761330">
        <ele>356.861</ele>
        <time>2018-12-29T08:24:13Z</time>
      </trkpt>
      <trkpt lat="34.119810" lon="-117.763490">
        <ele>353.007</ele>
        <time>2018-12-29T08:24:33Z</time>
      </trkpt>
      <trkpt lat="34.119830" lon="-117.766240">
        <ele>349.508</ele>
        <time>2018-12-29T08:24:53Z</time>
      </trkpt>
      <trkpt lat="34.119830" lon="-117.766720">
        <ele>348.656</ele>
        <time>2018-12-29T08:25:13Z</time>
      </trkpt>
      <trkpt lat="34.119830" lon="-117.767020">
        <ele>348.344</ele>
        <time>2018-12-29T08:25:33Z</time>
      </trkpt>
      <trkpt lat="34.119810" lon="-117.767810">
        <ele>350.279</ele>
        <time>2018-12-29T08:25:53Z</time>
      </trkpt>
      <trkpt lat="34.119790" lon="-117.768270">
        <ele>350.290</ele>
        <time>2018-12-29T08:26:13Z</time>
      </trkpt>
      <trkpt lat="34.119760" lon="-117.769060">
        <ele>349.395</ele>
        <time>2018-12-29T08:26:33Z</time>
      </trkpt>
      <trkpt lat="34.119680" lon="-117.770640">
        <ele>349.196</ele>
        <time>2018-12-29T08:26:53Z</time>
      </trkpt>
      <trkpt lat="34.119620" lon="-117.771910">
        <ele>350.039</ele>
        <time>2018-12-29T08:27:13Z</time>
      </trkpt>
      <trkpt lat="34.119600" lon="-117.772260">
        <ele>350.229</ele>
        <time>2018-12-29T08:27:33Z</time>
      </trkpt>
      <trkpt lat="34.119590" lon="-117.772680">
        <ele>350.281</ele>
        <time>2018-12-29T08:27:53Z</time>
      </trkpt>
      <trkpt lat="34.119580" lon="-117.773340">
        <ele>349.461</ele>
        <time>2018-12-29T08:28:13Z</time>
      </trkpt>
      <trkpt lat="34.119580" lon="-117.773490">
        <ele>348.817</ele>
        <time>2018-12-29T08:28:33Z</time>
      </trkpt>
      <trkpt lat="34.119590" lon="-117.773790">
        <ele>348.608</ele>
        <time>2018-12-29T08:28:53Z</time>
      </trkpt>
      <trkpt lat="34.119590" lon="-117.774120">
        <ele>349.441</ele>
        <time>2018-12-29T08:29:13Z</time>
      </trkpt>
      <trkpt lat="34.119590" lon="-117.774280">
        <ele>349.669</ele>
        <time>2018-12-29T08:29:33Z</time>
      </trkpt>
      <trkpt lat="34.119600" lon="-117.774590">
        <ele>349.984</ele>
        <time>2018-12-29T08:29:53Z</time>
      </trkpt>
      <trkpt lat="34.119610" lon="-117.774910">
        <ele>349.985</ele>
        <time>2018-12-29T08:30:13Z</time>
      </trkpt>
      <trkpt lat="34.119620" lon="-117.775220">
        <ele>349.630</ele>
        <time>2018-12-29T08:30:33Z</time>
      </trkpt>
      <trkpt lat="34.119640" lon="-117.775690">
        <ele>349.141</ele>
        <time>2018-12-29T08:30:53Z</time>
      </trkpt>
      <trkpt lat="34.119700" lon="-117.776630">
        <ele>348.654</ele>
        <time>2018-12-29T08:31:13Z</time>
      </trkpt>
      <trkpt lat="34.119730" lon="-117.777270">
        <ele>348.454</ele>
        <time>2018-12-29T08:31:33Z</time>
      </trkpt>
      <trkpt lat="34.119840" lon="-117.779180">
        <ele>347.596</ele>
        <time>2018-12-29T08:31:53Z</time>
      </trkpt>
      <trkpt lat="34.119880" lon="-117.779790">
        <ele>347.331</ele>
        <time>2018-12-29T08:32:13Z</time>
      </trkpt>
      <trkpt lat="34.119930" lon="-117.780440">
        <ele>347.024</ele>
        <time>2018-12-29T08:32:33Z</time>
      </trkpt>
      <trkpt lat="34.119990" lon="-117.781390">
        <ele>346.508</ele>
        <time>2018-12-29T08:32:53Z</time>
      </trkpt>
      <trkpt lat="34.120120" lon="-117.783270">
        <ele>345.682</ele>
        <time>2018-12-29T08:33:13Z</time>
      </trkpt>
      <trkpt lat="34.120150" lon="-117.783900">
        <ele>345.180</ele>
        <time>2018-12-29T08:33:33Z</time>
      </trkpt>
      <trkpt lat="34.120180" lon="-117.784520">
        <ele>344.595</ele>
        <time>2018-12-29T08:33:53Z</time>
      </trkpt>
      <trkpt lat="34.120190" lon="-117.785020">
        <ele>343.696</ele>
        <time>2018-12-29T08:34:13Z</time>
      </trkpt>
      <trkpt lat="34.120190" lon="-117.785500">
        <ele>342.231</ele>
        <time>2018-12-29T08:34:33Z</time>
      </trkpt>
      <trkpt lat="34.120190" lon="-117.785890">
        <ele>341.372</ele>
        <time>2018-12-29T08:34:53Z</time>
      </trkpt>
      <trkpt lat="34.120180" lon="-117.786560">
        <ele>340.115</ele>
        <time>2018-12-29T08:35:13Z</time>
      </trkpt>
      <trkpt lat="34.120180" lon="-117.786620">
        <ele>340.015</ele>
        <time>2018-12-29T08:35:33Z</time>
      </trkpt>
      <trkpt lat="34.120160" lon="-117.787030">
        <ele>339.376</ele>
        <time>2018-12-29T08:35:53Z</time>
      </trkpt>
      <trkpt lat="34.120150" lon="-117.787440">
        <ele>338.590</ele>
        <time>2018-12-29T08:36:13Z</time>
      </trkpt>
      <trkpt lat="34.120150" lon="-117.787540">
        <ele>338.319</ele>
        <time>2018-12-29T08:36:33Z</time>
      </trkpt>
      <trkpt lat="34.120140" lon="-117.787720">
        <ele>337.908</ele>
        <time>2018-12-29T08:36:53Z</time>
      </trkpt>
      <trkpt lat="34.120100" lon="-117.788250">
        <ele>336.660</ele>
        <time>2018-12-29T08:37:13Z</time>
      </trkpt>
      <trkpt lat="34.120050" lon="-117.788860">
        <ele>335.588</ele>
        <time>2018-12-29T08:37:33Z</time>
      </trkpt>
      <trkpt lat="34.120000" lon="-117.789640">
        <ele>334.563</ele>
        <time>2018-12-29T08:37:53Z</time>
      </trkpt>
      <trkpt lat="34.119940" lon="-117.790320">
        <ele>333.554</ele>
        <time>2018-12-29T08:38:13Z</time>
      </trkpt>
      <trkpt lat="34.119940" lon="-117.790420">
        <ele>333.219</ele>
        <time>2018-12-29T08:38:33Z</time>
      </trkpt>
      <trkpt lat="34.119910" lon="-117.790910">
        <ele>331.980</ele>
        <time>2018-12-29T08:38:53Z</time>
      </trkpt>
      <trkpt lat="34.119900" lon="-117.791160">
        <ele>331.483</ele>
        <time>2018-12-29T08:39:13Z</time>
      </trkpt>
      <trkpt lat="34.119900" lon="-117.791560">
        <ele>330.343</ele>
        <time>2018-12-29T08:39:33Z</time>
      </trkpt>
      <trkpt lat="34.119890" lon="-117.791700">
        <ele>330.178</ele>
        <time>2018-12-29T08:39:53Z</time>
      </trkpt>
      <trkpt lat="34.119890" lon="-117.791930">
        <ele>330.133</ele>
        <time>2018-12-29T08:40:13Z</time>
      </trkpt>
      <trkpt lat="34.119870" lon="-117.793580">
        <ele>323.026</ele>
        <time>2018-12-29T08:40:33Z</time>
      </trkpt>
      <trkpt lat="34.119870" lon="-117.793810">
        <ele>322.708</ele>
        <time>2018-12-29T08:40:53Z</time>
      </trkpt>
      <trkpt lat="34.119870" lon="-117.793960">
        <ele>322.860</ele>
        <time>2018-12-29T08:41:13Z</time>
      </trkpt>
      <trkpt lat="34.119880" lon="-117.793960">
        <ele>322.878</ele>
        <time>2018-12-29T08:41:33Z</time>
      </trkpt>
      <trkpt lat="34.119880" lon="-117.794090">
        <ele>322.893</ele>
        <time>2018-12-29T08:41:53Z</time>
      </trkpt>
      <trkpt lat="34.119870" lon="-117.794370">
        <ele>322.864</ele>
        <time>2018-12-29T08:42:13Z</time>
      </trkpt>
      <trkpt lat="34.119880" lon="-117.795220">
        <ele>321.879</ele>
        <time>2018-12-29T08:42:33Z</time>
      </trkpt>
      <trkpt lat="34.119880" lon="-117.795820">
        <ele>320.450</ele>
        <time>2018-12-29T08:42:53Z</time>
      </trkpt>
      <trkpt lat="34.119880" lon="-117.795990">
        <ele>320.023</ele>
        <time>2018-12-29T08:43:13Z</time>
      </trkpt>
      <trkpt lat="34.119870" lon="-117.796830">
        <ele>318.653</ele>
        <time>2018-12-29T08:43:33Z</time>
      </trkpt>
      <trkpt lat="34.119870" lon="-117.797790">
        <ele>317.095</ele>
        <time>2018-12-29T08:43:53Z</time>
      </trkpt>
      <trkpt lat="34.119870" lon="-117.798290">
        <ele>316.549</ele>
        <time>2018-12-29T08:44:13Z</time>
      </trkpt>
      <trkpt lat="34.119890" lon="-117.799210">
        <ele>315.523</ele>
        <time>2018-12-29T08:44:33Z</time>
      </trkpt>
      <trkpt lat="34.119890" lon="-117.800020">
        <ele>314.608</ele>
        <time>2018-12-29T08:44:53Z</time>
      </trkpt>
      <trkpt lat="34.119890" lon="-117.800920">
        <ele>313.932</ele>
        <time>2018-12-29T08:45:13Z</time>
      </trkpt>
      <trkpt lat="34.119880" lon="-117.801600">
        <ele>313.270</ele>
        <time>2018-12-29T08:45:33Z</time>
      </trkpt>
      <trkpt lat="34.119890" lon="-117.802740">
        <ele>311.555</ele>
        <time>2018-12-29T08:45:53Z</time>
      </trkpt>
      <trkpt lat="34.119890" lon="-117.803350">
        <ele>311.056</ele>
        <time>2018-12-29T08:46:13Z</time>
      </trkpt>
      <trkpt lat="34.119860" lon="-117.806980">
        <ele>305.111</ele>
        <time>2018-12-29T08:46:33Z</time>
      </trkpt>
      <trkpt lat="34.119860" lon="-117.807010">
        <ele>305.152</ele>
        <time>2018-12-29T08:46:53Z</time>
      </trkpt>
      <trkpt lat="34.119860" lon="-117.807080">
        <ele>305.015</ele>
        <time>2018-12-29T08:47:13Z</time>
      </trkpt>
      <trkpt lat="34.119870" lon="-117.807180">
        <ele>304.945</ele>
        <time>2018-12-29T08:47:33Z</time>
      </trkpt>
      <trkpt lat="34.119860" lon="-117.807340">
        <ele>304.683</ele>
        <time>2018-12-29T08:47:53Z</time>
      </trkpt>
      <trkpt lat="34.119870" lon="-117.807910">
        <ele>303.825</ele>
        <time>2018-12-29T08:48:13Z</time>
      </trkpt>
      <trkpt lat="34.119870" lon="-117.808730">
        <ele>302.517</ele>
        <time>2018-12-29T08:48:33Z</time>
      </trkpt>
      <trkpt lat="34.119870" lon="-117.808830">
        <ele>302.308</ele>
        <time>2018-12-29T08:48:53Z</time>
      </trkpt>
      <trkpt lat="34.119870" lon="-117.810810">
        <ele>299.841</ele>
        <time>2018-12-29T08:49:13Z</time>
      </trkpt>
      <trkpt lat="34.119880" lon="-117.811600">
        <ele>298.429</ele>
        <time>2018-12-29T08:49:33Z</time>
      </trkpt>
      <trkpt lat="34.119880" lon="-117.812090">
        <ele>297.244</ele>
        <time>2018-12-29T08:49:53Z</time>
      </trkpt>
      <trkpt lat="34.119880" lon="-117.812390">
        <ele>296.735</ele>
        <time>2018-12-29T08:50:13Z</time>
      </trkpt>
      <trkpt lat="34.119880" lon="-117.812710">
        <ele>295.950</ele>
        <time>2018-12-29T08:50:33Z</time>
      </trkpt>
      <trkpt lat="34.119880" lon="-117.813020">
        <ele>295.491</ele>
        <time>2018-12-29T08:50:53Z</time>
      </trkpt>
      <trkpt lat="34.119880" lon="-117.813340">
        <ele>294.914</ele>
        <time>2018-12-29T08:51:13Z</time>
      </trkpt>
      <trkpt lat="34.119880" lon="-117.813660">
        <ele>294.644</ele>
        <time>2018-12-29T08:51:33Z</time>
      </trkpt>
      <trkpt lat="34.119880" lon="-117.813970">
        <ele>294.277</ele>
        <time>2018-12-29T08:51:53Z</time>
      </trkpt>
      <trkpt lat="34.119890" lon="-117.814740">
        <ele>292.961</ele>
        <time>2018-12-29T08:52:13Z</time>
      </trkpt>
      <trkpt lat="34.119900" lon="-117.814930">
        <ele>292.527</ele>
        <time>2018-12-29T08:52:33Z</time>
      </trkpt>
      <trkpt lat="34.119910" lon="-117.815250">
        <ele>291.808</ele>
        <time>2018-12-29T08:52:53Z</time>
      </trkpt>
      <trkpt lat="34.119920" lon="-117.815560">
        <ele>291.240</ele>
        <time>2018-12-29T08:53:13Z</time>
      </trkpt>
      <trkpt lat="34.119940" lon="-117.815880">
        <ele>290.588</ele>
        <time>2018-12-29T08:53:33Z</time>
      </trkpt>
      <trkpt lat="34.119960" lon="-117.816190">
        <ele>289.963</ele>
        <time>2018-12-29T08:53:53Z</time>
      </trkpt>
      <trkpt lat="34.119980" lon="-117.816510">
        <ele>289.524</ele>
        <time>2018-12-29T08:54:13Z</time>
      </trkpt>
      <trkpt lat="34.120010" lon="-117.816820">
        <ele>289.139</ele>
        <time>2018-12-29T08:54:33Z</time>
      </trkpt>
      <trkpt lat="34.120030" lon="-117.817140">
        <ele>288.610</ele>
        <time>2018-12-29T08:54:53Z</time>
      </trkpt>
      <trkpt lat="34.120060" lon="-117.817440">
        <ele>288.363</ele>
        <time>2018-12-29T08:55:13Z</time>
      </trkpt>
      <trkpt lat="34.120280" lon="-117.819950">
        <ele>283.863</ele>
        <time>2018-12-29T08:55:33Z</time>
      </trkpt>
      <trkpt lat="34.120300" lon="-117.820190">
        <ele>283.441</ele>
        <time>2018-12-29T08:55:53Z</time>
      </trkpt>
      <trkpt lat="34.120320" lon="-117.820390">
        <ele>283.281</ele>
        <time>2018-12-29T08:56:13Z</time>
      </trkpt>
      <trkpt lat="34.120500" lon="-117.822400">
        <ele>278.509</ele>
        <time>2018-12-29T08:56:33Z</time>
      </trkpt>
      <trkpt lat="34.120530" lon="-117.822760">
        <ele>277.508</ele>
        <time>2018-12-29T08:56:53Z</time>
      </trkpt>
      <trkpt lat="34.120540" lon="-117.822960">
        <ele>277.157</ele>
        <time>2018-12-29T08:57:13Z</time>
      </trkpt>
      <trkpt lat="34.120670" lon="-117.824490">
        <ele>275.565</ele>
        <time>2018-12-29T08:57:33Z</time>
      </trkpt>
      <trkpt lat="34.120710" lon="-117.824800">
        <ele>275.540</ele>
        <time>2018-12-29T08:57:53Z</time>
      </trkpt>
      <trkpt lat="34.120740" lon="-117.825110">
        <ele>275.131</ele>
        <time>2018-12-29T08:58:13Z</time>
      </trkpt>
      <trkpt lat="34.120750" lon="-117.825270">
        <ele>274.446</ele>
        <time>2018-12-29T08:58:33Z</time>
      </trkpt>
      <trkpt lat="34.120780" lon="-117.825580">
        <ele>272.977</ele>
        <time>2018-12-29T08:58:53Z</time>
      </trkpt>
      <trkpt lat="34.120810" lon="-117.825890">
        <ele>272.160</ele>
        <time>2018-12-29T08:59:13Z</time>
      </trkpt>
      <trkpt lat="34.120840" lon="-117.826250">
        <ele>272.240</ele>
        <time>2018-12-29T08:59:33Z</time>
      </trkpt>
      <trkpt lat="34.120850" lon="-117.826310">
        <ele>272.331</ele>
        <time>2018-12-29T08:59:53Z</time>
      </trkpt>
      <trkpt lat="34.120870" lon="-117.826530">
        <ele>272.561</ele>
        <time>2018-12-29T09:00:13Z</time>
      </trkpt>
      <trkpt lat="34.120900" lon="-117.826840">
        <ele>272.507</ele>
        <time>2018-12-29T09:00:33Z</time>
      </trkpt>
      <trkpt lat="34.120920" lon="-117.827150">
        <ele>272.708</ele>
        <time>2018-12-29T09:00:53Z</time>
      </trkpt>
      <trkpt lat="34.120950" lon="-117.827460">
        <ele>273.546</ele>
        <time>2018-12-29T09:01:13Z</time>
      </trkpt>
      <trkpt lat="34.120980" lon="-117.827790">
        <ele>274.474</ele>
        <time>2018-12-29T09:01:33Z</time>
      </trkpt>
      <trkpt lat="34.121020" lon="-117.828330">
        <ele>273.989</ele>
        <time>2018-12-29T09:01:53Z</time>
      </trkpt>
      <trkpt lat="34.121060" lon="-117.828760">
        <ele>272.890</ele>
        <time>2018-12-29T09:02:13Z</time>
      </trkpt>
      <trkpt lat="34.121060" lon="-117.828800">
        <ele>272.725</ele>
        <time>2018-12-29T09:02:33Z</time>
      </trkpt>
      <trkpt lat="34.121070" lon="-117.828860">
        <ele>272.516</ele>
        <time>2018-12-29T09:02:53Z</time>
      </trkpt>
      <trkpt lat="34.121080" lon="-117.829000">
        <ele>272.219</ele>
        <time>2018-12-29T09:03:13Z</time>
      </trkpt>
      <trkpt lat="34.121080" lon="-117.829010">
        <ele>272.229</ele>
        <time>2018-12-29T09:03:33Z</time>
      </trkpt>
      <trkpt lat="34.121110" lon="-117.829410">
        <ele>271.448</ele>
        <time>2018-12-29T09:03:53Z</time>
      </trkpt>
      <trkpt lat="34.121160" lon="-117.829970">
        <ele>270.661</ele>
        <time>2018-12-29T09:04:13Z</time>
      </trkpt>
      <trkpt lat="34.121200" lon="-117.830440">
        <ele>270.217</ele>
        <time>2018-12-29T09:04:33Z</time>
      </trkpt>
      <trkpt lat="34.121210" lon="-117.830860">
        <ele>269.808</ele>
        <time>2018-12-29T09:04:53Z</time>
      </trkpt>
      <trkpt lat="34.121220" lon="-117.831330">
        <ele>269.267</ele>
        <time>2018-12-29T09:05:13Z</time>
      </trkpt>
      <trkpt lat="34.121220" lon="-117.831680">
        <ele>268.385</ele>
        <time>2018-12-29T09:05:33Z</time>
      </trkpt>
      <trkpt lat="34.121210" lon="-117.832000">
        <ele>267.290</ele>
        <time>2018-12-29T09:05:53Z</time>
      </trkpt>
      <trkpt lat="34.121200" lon="-117.832310">
        <ele>267.251</ele>
        <time>2018-12-29T09:06:13Z</time>
      </trkpt>
      <trkpt lat="34.121190" lon="-117.832610">
        <ele>267.836</ele>
        <time>2018-12-29T09:06:33Z</time>
      </trkpt>
      <trkpt lat="34.121160" lon="-117.833060">
        <ele>273.817</ele>
        <time>2018-12-29T09:06:53Z</time>
      </trkpt>
      <trkpt lat="34.121120" lon="-117.833420">
        <ele>276.570</ele>
        <time>2018-12-29T09:07:13Z</time>
      </trkpt>
      <trkpt lat="34.121080" lon="-117.833840">
        <ele>274.710</ele>
        <time>2018-12-29T09:07:33Z</time>
      </trkpt>
      <trkpt lat="34.121020" lon="-117.834230">
        <ele>268.916</ele>
        <time>2018-12-29T09:07:53Z</time>
      </trkpt>
      <trkpt lat="34.120980" lon="-117.834510">
        <ele>265.776</ele>
        <time>2018-12-29T09:08:13Z</time>
      </trkpt>
      <trkpt lat="34.120910" lon="-117.834900">
        <ele>262.113</ele>
        <time>2018-12-29T09:08:33Z</time>
      </trkpt>
      <trkpt lat="34.120730" lon="-117.835790">
        <ele>261.208</ele>
        <time>2018-12-29T09:08:53Z</time>
      </trkpt>
      <trkpt lat="34.120690" lon="-117.835960">
        <ele>261.564</ele>
        <time>2018-12-29T09:09:13Z</time>
      </trkpt>
      <trkpt lat="34.120620" lon="-117.836230">
        <ele>261.882</ele>
        <time>2018-12-29T09:09:33Z</time>
      </trkpt>
      <trkpt lat="34.120520" lon="-117.836600">
        <ele>261.457</ele>
        <time>2018-12-29T09:09:53Z</time>
      </trkpt>
      <trkpt lat="34.120400" lon="-117.837030">
        <ele>261.238</ele>
        <time>2018-12-29T09:10:13Z</time>
      </trkpt>
      <trkpt lat="34.120200" lon="-117.837690">
        <ele>263.213</ele>
        <time>2018-12-29T09:10:33Z</time>
      </trkpt>
      <trkpt lat="34.120196" lon="-117.837688">
        <ele>263.124</ele>
        <time>2018-12-29T09:10:53Z</time>
      </trkpt>
      <trkpt lat="34.119970" lon="-117.838330">
        <ele>267.547</ele>
        <time>2018-12-29T09:11:13Z</time>
      </trkpt>
      <trkpt lat="34.119960" lon="-117.838380">
        <ele>269.027</ele>
        <time>2018-12-29T09:11:33Z</time>
      </trkpt>
      <trkpt lat="34.119770" lon="-117.838840">
        <ele>281.278</ele>
        <time>2018-12-29T09:11:53Z</time>
      </trkpt>
      <trkpt lat="34.119170" lon="-117.840230">
        <ele>259.033</ele>
        <time>2018-12-29T09:12:13Z</time>
      </trkpt>
      <trkpt lat="34.118850" lon="-117.840960">
        <ele>257.226</ele>
        <time>2018-12-29T09:12:33Z</time>
      </trkpt>
      <trkpt lat="34.118610" lon="-117.841500">
        <ele>257.308</ele>
        <time>2018-12-29T09:12:53Z</time>
      </trkpt>
      <trkpt lat="34.118420" lon="-117.841960">
        <ele>263.750</ele>
        <time>2018-12-29T09:13:13Z</time>
      </trkpt>
      <trkpt lat="34.118320" lon="-117.842200">
        <ele>264.368</ele>
        <time>2018-12-29T09:13:33Z</time>
      </trkpt>
      <trkpt lat="34.118250" lon="-117.842400">
        <ele>262.663</ele>
        <time>2018-12-29T09:13:53Z</time>
      </trkpt>
      <trkpt lat="34.118220" lon="-117.842490">
        <ele>262.074</ele>
        <time>2018-12-29T09:14:13Z</time>
      </trkpt>
      <trkpt lat="34.118090" lon="-117.842890">
        <ele>268.779</ele>
        <time>2018-12-29T09:14:33Z</time>
      </trkpt>
      <trkpt lat="34.118000" lon="-117.843200">
        <ele>275.460</ele>
        <time>2018-12-29T09:14:53Z</time>
      </trkpt>
      <trkpt lat="34.117930" lon="-117.843520">
        <ele>268.493</ele>
        <time>2018-12-29T09:15:13Z</time>
      </trkpt>
      <trkpt lat="34.117870" lon="-117.843840">
        <ele>266.273</ele>
        <time>2018-12-29T09:15:33Z</time>
      </trkpt>
      <trkpt lat="34.117810" lon="-117.844160">
        <ele>267.838</ele>
        <time>2018-12-29T09:15:53Z</time>
      </trkpt>
      <trkpt lat="34.117770" lon="-117.844470">
        <ele>264.070</ele>
        <time>2018-12-29T09:16:13Z</time>
      </trkpt>
      <trkpt lat="34.117740" lon="-117.844750">
        <ele>257.617</ele>
        <time>2018-12-29T09:16:33Z</time>
      </trkpt>
      <trkpt lat="34.117720" lon="-117.845020">
        <ele>253.008</ele>
        <time>2018-12-29T09:16:53Z</time>
      </trkpt>
      <trkpt lat="34.117710" lon="-117.845360">
        <ele>249.666</ele>
        <time>2018-12-29T09:17:13Z</time>
      </trkpt>
      <trkpt lat="34.117710" lon="-117.845730">
        <ele>248.164</ele>
        <time>2018-12-29T09:17:33Z</time>
      </trkpt>
      <trkpt lat="34.117710" lon="-117.845940">
        <ele>247.979</ele>
        <time>2018-12-29T09:17:53Z</time>
      </trkpt>
      <trkpt lat="34.117710" lon="-117.846130">
        <ele>248.140</ele>
        <time>2018-12-29T09:18:13Z</time>
      </trkpt>
      <trkpt lat="34.117710" lon="-117.846580">
        <ele>249.335</ele>
        <time>2018-12-29T09:18:33Z</time>
      </trkpt>
      <trkpt lat="34.117720" lon="-117.849090">
        <ele>252.386</ele>
        <time>2018-12-29T09:18:53Z</time>
      </trkpt>
      <trkpt lat="34.117720" lon="-117.849610">
        <ele>245.939</ele>
        <time>2018-12-29T09:19:13Z</time>
      </trkpt>
      <trkpt lat="34.117730" lon="-117.850200">
        <ele>251.159</ele>
        <time>2018-12-29T09:19:33Z</time>
      </trkpt>
      <trkpt lat="34.117730" lon="-117.850430">
        <ele>252.947</ele>
        <time>2018-12-29T09:19:53Z</time>
      </trkpt>
      <trkpt lat="34.117730" lon="-117.851130">
        <ele>267.829</ele>
        <time>2018-12-29T09:20:13Z</time>
      </trkpt>
      <trkpt lat="34.117730" lon="-117.852240">
        <ele>291.521</ele>
        <time>2018-12-29T09:20:33Z</time>
      </trkpt>
      <trkpt lat="34.117730" lon="-117.853230">
        <ele>277.008</ele>
        <time>2018-12-29T09:20:53Z</time>
      </trkpt>
      <trkpt lat="34.117730" lon="-117.853710">
        <ele>263.277</ele>
        <time>2018-12-29T09:21:13Z</time>
      </trkpt>
      <trkpt lat="34.117740" lon="-117.854190">
        <ele>248.835</ele>
        <time>2018-12-29T09:21:33Z</time>
      </trkpt>
      <trkpt lat="34.117730" lon="-117.854540">
        <ele>244.940</ele>
        <time>2018-12-29T09:21:53Z</time>
      </trkpt>
      <trkpt lat="34.117730" lon="-117.854560">
        <ele>244.741</ele>
        <time>2018-12-29T09:22:13Z</time>
      </trkpt>
      <trkpt lat="34.117710" lon="-117.854960">
        <ele>243.456</ele>
        <time>2018-12-29T09:22:33Z</time>
      </trkpt>
      <trkpt lat="34.117680" lon="-117.855360">
        <ele>243.737</ele>
        <time>2018-12-29T09:22:53Z</time>
      </trkpt>
      <trkpt lat="34.117650" lon="-117.855680">
        <ele>248.210</ele>
        <time>2018-12-29T09:23:13Z</time>
      </trkpt>
      <trkpt lat="34.117620" lon="-117.855940">
        <ele>252.210</ele>
        <time>2018-12-29T09:23:33Z</time>
      </trkpt>
      <trkpt lat="34.117590" lon="-117.856140">
        <ele>257.219</ele>
        <time>2018-12-29T09:23:53Z</time>
      </trkpt>
      <trkpt lat="34.117560" lon="-117.856370">
        <ele>263.109</ele>
        <time>2018-12-29T09:24:13Z</time>
      </trkpt>
      <trkpt lat="34.117490" lon="-117.856850">
        <ele>269.619</ele>
        <time>2018-12-29T09:24:33Z</time>
      </trkpt>
      <trkpt lat="34.117400" lon="-117.857490">
        <ele>256.008</ele>
        <time>2018-12-29T09:24:53Z</time>
      </trkpt>
      <trkpt lat="34.117330" lon="-117.857930">
        <ele>241.724</ele>
        <time>2018-12-29T09:25:13Z</time>
      </trkpt>
      <trkpt lat="34.117270" lon="-117.858380">
        <ele>233.542</ele>
        <time>2018-12-29T09:25:33Z</time>
      </trkpt>
      <trkpt lat="34.117220" lon="-117.858760">
        <ele>231.897</ele>
        <time>2018-12-29T09:25:53Z</time>
      </trkpt>
      <trkpt lat="34.117190" lon="-117.859120">
        <ele>233.638</ele>
        <time>2018-12-29T09:26:13Z</time>
      </trkpt>
      <trkpt lat="34.117180" lon="-117.859320">
        <ele>234.623</ele>
        <time>2018-12-29T09:26:33Z</time>
      </trkpt>
      <trkpt lat="34.117170" lon="-117.859660">
        <ele>235.994</ele>
        <time>2018-12-29T09:26:53Z</time>
      </trkpt>
      <trkpt lat="34.117170" lon="-117.859880">
        <ele>236.047</ele>
        <time>2018-12-29T09:27:13Z</time>
      </trkpt>
      <trkpt lat="34.117170" lon="-117.860110">
        <ele>238.297</ele>
        <time>2018-12-29T09:27:33Z</time>
      </trkpt>
      <trkpt lat="34.117180" lon="-117.860460">
        <ele>246.699</ele>
        <time>2018-12-29T09:27:53Z</time>
      </trkpt>
      <trkpt lat="34.117190" lon="-117.860710">
        <ele>254.307</ele>
        <time>2018-12-29T09:28:13Z</time>
      </trkpt>
      <trkpt lat="34.117220" lon="-117.861080">
        <ele>256.727</ele>
        <time>2018-12-29T09:28:33Z</time>
      </trkpt>
      <trkpt lat="34.117260" lon="-117.861420">
        <ele>248.208</ele>
        <time>2018-12-29T09:28:53Z</time>
      </trkpt>
      <trkpt lat="34.117330" lon="-117.861850">
        <ele>238.312</ele>
        <time>2018-12-29T09:29:13Z</time>
      </trkpt>
      <trkpt lat="34.117370" lon="-117.862080">
        <ele>245.470</ele>
        <time>2018-12-29T09:29:33Z</time>
      </trkpt>
      <trkpt lat="34.117410" lon="-117.862320">
        <ele>255.125</ele>
        <time>2018-12-29T09:29:53Z</time>
      </trkpt>
      <trkpt lat="34.117510" lon="-117.862750">
        <ele>258.996</ele>
        <time>2018-12-29T09:30:13Z</time>
      </trkpt>
      <trkpt lat="34.117640" lon="-117.863200">
        <ele>241.231</ele>
        <time>2018-12-29T09:30:33Z</time>
      </trkpt>
      <trkpt lat="34.117750" lon="-117.863550">
        <ele>230.572</ele>
        <time>2018-12-29T09:30:53Z</time>
      </trkpt>
      <trkpt lat="34.117900" lon="-117.863970">
        <ele>229.775</ele>
        <time>2018-12-29T09:31:13Z</time>
      </trkpt>
      <trkpt lat="34.118060" lon="-117.864340">
        <ele>226.955</ele>
        <time>2018-12-29T09:31:33Z</time>
      </trkpt>
      <trkpt lat="34.118210" lon="-117.864710">
        <ele>220.479</ele>
        <time>2018-12-29T09:31:53Z</time>
      </trkpt>
      <trkpt lat="34.118260" lon="-117.864820">
        <ele>218.805</ele>
        <time>2018-12-29T09:32:13Z</time>
      </trkpt>
      <trkpt lat="34.118330" lon="-117.864950">
        <ele>217.025</ele>
        <time>2018-12-29T09:32:33Z</time>
      </trkpt>
      <trkpt lat="34.118420" lon="-117.865130">
        <ele>214.708</ele>
        <time>2018-12-29T09:32:53Z</time>
      </trkpt>
      <trkpt lat="34.118610" lon="-117.865480">
        <ele>213.680</ele>
        <time>2018-12-29T09:33:13Z</time>
      </trkpt>
      <trkpt lat="34.118760" lon="-117.865750">
        <ele>213.138</ele>
        <time>2018-12-29T09:33:33Z</time>
      </trkpt>
      <trkpt lat="34.118860" lon="-117.865940">
        <ele>212.863</ele>
        <time>2018-12-29T09:33:53Z</time>
      </trkpt>
      <trkpt lat="34.119180" lon="-117.866510">
        <ele>212.484</ele>
        <time>2018-12-29T09:34:13Z</time>
      </trkpt>
      <trkpt lat="34.119300" lon="-117.866720">
        <ele>211.789</ele>
        <time>2018-12-29T09:34:33Z</time>
      </trkpt>
      <trkpt lat="34.119390" lon="-117.866900">
        <ele>210.850</ele>
        <time>2018-12-29T09:34:53Z</time>
      </trkpt>
      <trkpt lat="34.119510" lon="-117.867120">
        <ele>209.743</ele>
        <time>2018-12-29T09:35:13Z</time>
      </trkpt>
      <trkpt lat="34.119590" lon="-117.867290">
        <ele>209.283</ele>
        <time>2018-12-29T09:35:33Z</time>
      </trkpt>
      <trkpt lat="34.119660" lon="-117.867440">
        <ele>208.755</ele>
        <time>2018-12-29T09:35:53Z</time>
      </trkpt>
      <trkpt lat="34.119710" lon="-117.867550">
        <ele>208.507</ele>
        <time>2018-12-29T09:36:13Z</time>
      </trkpt>
      <trkpt lat="34.119760" lon="-117.867660">
        <ele>208.217</ele>
        <time>2018-12-29T09:36:33Z</time>
      </trkpt>
      <trkpt lat="34.119810" lon="-117.867780">
        <ele>208.008</ele>
        <time>2018-12-29T09:36:53Z</time>
      </trkpt>
      <trkpt lat="34.119880" lon="-117.867970">
        <ele>207.968</ele>
        <time>2018-12-29T09:37:13Z</time>
      </trkpt>
      <trkpt lat="34.119960" lon="-117.868160">
        <ele>208.276</ele>
        <time>2018-12-29T09:37:33Z</time>
      </trkpt>
      <trkpt lat="34.120050" lon="-117.868420">
        <ele>209.161</ele>
        <time>2018-12-29T09:37:53Z</time>
      </trkpt>
      <trkpt lat="34.120150" lon="-117.868730">
        <ele>209.562</ele>
        <time>2018-12-29T09:38:13Z</time>
      </trkpt>
      <trkpt lat="34.120250" lon="-117.869070">
        <ele>210.067</ele>
        <time>2018-12-29T09:38:33Z</time>
      </trkpt>
      <trkpt lat="34.120360" lon="-117.869480">
        <ele>209.978</ele>
        <time>2018-12-29T09:38:53Z</time>
      </trkpt>
      <trkpt lat="34.120440" lon="-117.869830">
        <ele>209.541</ele>
        <time>2018-12-29T09:39:13Z</time>
      </trkpt>
      <trkpt lat="34.120490" lon="-117.870120">
        <ele>209.051</ele>
        <time>2018-12-29T09:39:33Z</time>
      </trkpt>
      <trkpt lat="34.120560" lon="-117.870540">
        <ele>208.624</ele>
        <time>2018-12-29T09:39:53Z</time>
      </trkpt>
      <trkpt lat="34.120600" lon="-117.870790">
        <ele>208.404</ele>
        <time>2018-12-29T09:40:13Z</time>
      </trkpt>
      <trkpt lat="34.120630" lon="-117.871150">
        <ele>208.014</ele>
        <time>2018-12-29T09:40:33Z</time>
      </trkpt>
      <trkpt lat="34.120660" lon="-117.871520">
        <ele>207.408</ele>
        <time>2018-12-29T09:40:53Z</time>
      </trkpt>
      <trkpt lat="34.120700" lon="-117.872100">
        <ele>206.495</ele>
        <time>2018-12-29T09:41:13Z</time>
      </trkpt>
      <trkpt lat="34.120720" lon="-117.872580">
        <ele>205.753</ele>
        <time>2018-12-29T09:41:33Z</time>
      </trkpt>
      <trkpt lat="34.120750" lon="-117.873070">
        <ele>205.138</ele>
        <time>2018-12-29T09:41:53Z</time>
      </trkpt>
      <trkpt lat="34.120800" lon="-117.873950">
        <ele>203.929</ele>
        <time>2018-12-29T09:42:13Z</time>
      </trkpt>
      <trkpt lat="34.120910" lon="-117.876030">
        <ele>201.214</ele>
        <time>2018-12-29T09:42:33Z</time>
      </trkpt>
      <trkpt lat="34.120930" lon="-117.876350">
        <ele>200.915</ele>
        <time>2018-12-29T09:42:53Z</time>
      </trkpt>
      <trkpt lat="34.120980" lon="-117.877410">
        <ele>199.888</ele>
        <time>2018-12-29T09:43:13Z</time>
      </trkpt>
      <trkpt lat="34.121010" lon="-117.878130">
        <ele>198.888</ele>
        <time>2018-12-29T09:43:33Z</time>
      </trkpt>
      <trkpt lat="34.121020" lon="-117.878280">
        <ele>198.614</ele>
        <time>2018-12-29T09:43:53Z</time>
      </trkpt>
      <trkpt lat="34.121040" lon="-117.879050">
        <ele>197.554</ele>
        <time>2018-12-29T09:44:13Z</time>
      </trkpt>
      <trkpt lat="34.121060" lon="-117.879690">
        <ele>196.409</ele>
        <time>2018-12-29T09:44:33Z</time>
      </trkpt>
      <trkpt lat="34.121070" lon="-117.880650">
        <ele>195.508</ele>
        <time>2018-12-29T09:44:53Z</time>
      </trkpt>
      <trkpt lat="34.121070" lon="-117.881650">
        <ele>194.384</ele>
        <time>2018-12-29T09:45:13Z</time>
      </trkpt>
      <trkpt lat="34.121040" lon="-117.883760">
        <ele>191.282</ele>
        <time>2018-12-29T09:45:33Z</time>
      </trkpt>
      <trkpt lat="34.121030" lon="-117.884430">
        <ele>190.137</ele>
        <time>2018-12-29T09:45:53Z</time>
      </trkpt>
      <trkpt lat="34.121020" lon="-117.885560">
        <ele>189.848</ele>
        <time>2018-12-29T09:46:13Z</time>
      </trkpt>
      <trkpt lat="34.121000" lon="-117.887260">
        <ele>187.123</ele>
        <time>2018-12-29T09:46:33Z</time>
      </trkpt>
      <trkpt lat="34.120970" lon="-117.889280">
        <ele>184.264</ele>
        <time>2018-12-29T09:46:53Z</time>
      </trkpt>
      <trkpt lat="34.120970" lon="-117.890400">
        <ele>183.057</ele>
        <time>2018-12-29T09:47:13Z</time>
      </trkpt>
      <trkpt lat="34.120980" lon="-117.891230">
        <ele>182.197</ele>
        <time>2018-12-29T09:47:33Z</time>
      </trkpt>
      <trkpt lat="34.121090" lon="-117.894890">
        <ele>176.339</ele>
        <time>2018-12-29T09:47:53Z</time>
      </trkpt>
      <trkpt lat="34.121130" lon="-117.896650">
        <ele>174.701</ele>
        <time>2018-12-29T09:48:13Z</time>
      </trkpt>
      <trkpt lat="34.121140" lon="-117.896920">
        <ele>174.421</ele>
        <time>2018-12-29T09:48:33Z</time>
      </trkpt>
      <trkpt lat="34.121150" lon="-117.897330">
        <ele>173.908</ele>
        <time>2018-12-29T09:48:53Z</time>
      </trkpt>
      <trkpt lat="34.121160" lon="-117.897510">
        <ele>173.866</ele>
        <time>2018-12-29T09:49:13Z</time>
      </trkpt>
      <trkpt lat="34.121190" lon="-117.898420">
        <ele>172.924</ele>
        <time>2018-12-29T09:49:33Z</time>
      </trkpt>
      <trkpt lat="34.121200" lon="-117.898970">
        <ele>172.569</ele>
        <time>2018-12-29T09:49:53Z</time>
      </trkpt>
      <trkpt lat="34.121210" lon="-117.899280">
        <ele>172.350</ele>
        <time>2018-12-29T09:50:13Z</time>
      </trkpt>
      <trkpt lat="34.121210" lon="-117.899850">
        <ele>171.715</ele>
        <time>2018-12-29T09:50:33Z</time>
      </trkpt>
      <trkpt lat="34.121210" lon="-117.900350">
        <ele>171.156</ele>
        <time>2018-12-29T09:50:53Z</time>
      </trkpt>
      <trkpt lat="34.121200" lon="-117.900950">
        <ele>170.049</ele>
        <time>2018-12-29T09:51:13Z</time>
      </trkpt>
      <trkpt lat="34.121190" lon="-117.901200">
        <ele>169.669</ele>
        <time>2018-12-29T09:51:33Z</time>
      </trkpt>
      <trkpt lat="34.121180" lon="-117.901560">
        <ele>169.099</ele>
        <time>2018-12-29T09:51:53Z</time>
      </trkpt>
      <trkpt lat="34.121160" lon="-117.901840">
        <ele>168.507</ele>
        <time>2018-12-29T09:52:13Z</time>
      </trkpt>
      <trkpt lat="34.121140" lon="-117.902220">
        <ele>167.927</ele>
        <time>2018-12-29T09:52:33Z</time>
      </trkpt>
      <trkpt lat="34.121060" lon="-117.903380">
        <ele>166.308</ele>
        <time>2018-12-29T09:52:53Z</time>
      </trkpt>
      <trkpt lat="34.121000" lon="-117.903990">
        <ele>165.632</ele>
        <time>2018-12-29T09:53:13Z</time>
      </trkpt>
      <trkpt lat="34.120920" lon="-117.904650">
        <ele>165.290</ele>
        <time>2018-12-29T09:53:33Z</time>
      </trkpt>
      <trkpt lat="34.120830" lon="-117.905510">
        <ele>164.795</ele>
        <time>2018-12-29T09:53:53Z</time>
      </trkpt>
      <trkpt lat="34.120760" lon="-117.906030">
        <ele>164.416</ele>
        <time>2018-12-29T09:54:13Z</time>
      </trkpt>
      <trkpt lat="34.120720" lon="-117.906430">
        <ele>164.341</ele>
        <time>2018-12-29T09:54:33Z</time>
      </trkpt>
      <trkpt lat="34.120710" lon="-117.906610">
        <ele>164.362</ele>
        <time>2018-12-29T09:54:53Z</time>
      </trkpt>
      <trkpt lat="34.120690" lon="-117.906890">
        <ele>164.425</ele>
        <time>2018-12-29T09:55:13Z</time>
      </trkpt>
      <trkpt lat="34.120690" lon="-117.907140">
        <ele>164.675</ele>
        <time>2018-12-29T09:55:33Z</time>
      </trkpt>
      <trkpt lat="34.120690" lon="-117.907400">
        <ele>164.542</ele>
        <time>2018-12-29T09:55:53Z</time>
      </trkpt>
      <trkpt lat="34.120700" lon="-117.907650">
        <ele>164.522</ele>
        <time>2018-12-29T09:56:13Z</time>
      </trkpt>
      <trkpt lat="34.120720" lon="-117.907910">
        <ele>164.614</ele>
        <time>2018-12-29T09:56:33Z</time>
      </trkpt>
      <trkpt lat="34.120770" lon="-117.908330">
        <ele>164.708</ele>
        <time>2018-12-29T09:56:53Z</time>
      </trkpt>
      <trkpt lat="34.120860" lon="-117.908770">
        <ele>164.837</ele>
        <time>2018-12-29T09:57:13Z</time>
      </trkpt>
      <trkpt lat="34.120970" lon="-117.909210">
        <ele>165.035</ele>
        <time>2018-12-29T09:57:33Z</time>
      </trkpt>
      <trkpt lat="34.121080" lon="-117.909590">
        <ele>165.290</ele>
        <time>2018-12-29T09:57:53Z</time>
      </trkpt>
      <trkpt lat="34.121180" lon="-117.909880">
        <ele>165.391</ele>
        <time>2018-12-29T09:58:13Z</time>
      </trkpt>
      <trkpt lat="34.121300" lon="-117.910160">
        <ele>165.516</ele>
        <time>2018-12-29T09:58:33Z</time>
      </trkpt>
      <trkpt lat="34.121390" lon="-117.910360">
        <ele>165.797</ele>
        <time>2018-12-29T09:58:53Z</time>
      </trkpt>
      <trkpt lat="34.121560" lon="-117.910690">
        <ele>166.040</ele>
        <time>2018-12-29T09:59:13Z</time>
      </trkpt>
      <trkpt lat="34.121660" lon="-117.910890">
        <ele>166.190</ele>
        <time>2018-12-29T09:59:33Z</time>
      </trkpt>
      <trkpt lat="34.121790" lon="-117.911090">
        <ele>166.388</ele>
        <time>2018-12-29T09:59:53Z</time>
      </trkpt>
      <trkpt lat="34.121930" lon="-117.911300">
        <ele>166.424</ele>
        <time>2018-12-29T10:00:13Z</time>
      </trkpt>
      <trkpt lat="34.122200" lon="-117.911670">
        <ele>166.726</ele>
        <time>2018-12-29T10:00:33Z</time>
      </trkpt>
      <trkpt lat="34.122570" lon="-117.912090">
        <ele>167.108</ele>
        <time>2018-12-29T10:00:53Z</time>
      </trkpt>
      <trkpt lat="34.123270" lon="-117.912800">
        <ele>168.441</ele>
        <time>2018-12-29T10:01:13Z</time>
      </trkpt>
      <trkpt lat="34.124000" lon="-117.913550">
        <ele>168.969</ele>
        <time>2018-12-29T10:01:33Z</time>
      </trkpt>
      <trkpt lat="34.125460" lon="-117.915030">
        <ele>171.194</ele>
        <time>2018-12-29T10:01:53Z</time>
      </trkpt>
      <trkpt lat="34.126150" lon="-117.915740">
        <ele>172.385</ele>
        <time>2018-12-29T10:02:13Z</time>
      </trkpt>
      <trkpt lat="34.126560" lon="-117.916160">
        <ele>173.090</ele>
        <time>2018-12-29T10:02:33Z</time>
      </trkpt>
      <trkpt lat="34.126720" lon="-117.916330">
        <ele>173.271</ele>
        <time>2018-12-29T10:02:53Z</time>
      </trkpt>
      <trkpt lat="34.127010" lon="-117.916700">
        <ele>173.624</ele>
        <time>2018-12-29T10:03:13Z</time>
      </trkpt>
      <trkpt lat="34.127210" lon="-117.916980">
        <ele>173.924</ele>
        <time>2018-12-29T10:03:33Z</time>
      </trkpt>
      <trkpt lat="34.127400" lon="-117.917290">
        <ele>174.142</ele>
        <time>2018-12-29T10:03:53Z</time>
      </trkpt>
      <trkpt lat="34.127530" lon="-117.917510">
        <ele>174.322</ele>
        <time>2018-12-29T10:04:13Z</time>
      </trkpt>
      <trkpt lat="34.127660" lon="-117.917750">
        <ele>174.514</ele>
        <time>2018-12-29T10:04:33Z</time>
      </trkpt>
      <trkpt lat="34.127800" lon="-117.918050">
        <ele>174.708</ele>
        <time>2018-12-29T10:04:53Z</time>
      </trkpt>
      <trkpt lat="34.127860" lon="-117.918190">
        <ele>174.897</ele>
        <time>2018-12-29T10:05:13Z</time>
      </trkpt>
      <trkpt lat="34.127950" lon="-117.918420">
        <ele>174.985</ele>
        <time>2018-12-29T10:05:33Z</time>
      </trkpt>
      <trkpt lat="34.128030" lon="-117.918660">
        <ele>174.920</ele>
        <time>2018-12-29T10:05:53Z</time>
      </trkpt>
      <trkpt lat="34.128150" lon="-117.919020">
        <ele>175.081</ele>
        <time>2018-12-29T10:06:13Z</time>
      </trkpt>
      <trkpt lat="34.128180" lon="-117.919170">
        <ele>175.086</ele>
        <time>2018-12-29T10:06:33Z</time>
      </trkpt>
      <trkpt lat="34.128220" lon="-117.919330">
        <ele>175.127</ele>
        <time>2018-12-29T10:06:53Z</time>
      </trkpt>
      <trkpt lat="34.128300" lon="-117.919650">
        <ele>175.180</ele>
        <time>2018-12-29T10:07:13Z</time>
      </trkpt>
      <trkpt lat="34.128310" lon="-117.919720">
        <ele>175.150</ele>
        <time>2018-12-29T10:07:33Z</time>
      </trkpt>
      <trkpt lat="34.128550" lon="-117.920840">
        <ele>175.227</ele>
        <time>2018-12-29T10:07:53Z</time>
      </trkpt>
      <trkpt lat="34.128690" lon="-117.921480">
        <ele>175.368</ele>
        <time>2018-12-29T10:08:13Z</time>
      </trkpt>
      <trkpt lat="34.128800" lon="-117.921930">
        <ele>175.614</ele>
        <time>2018-12-29T10:08:33Z</time>
      </trkpt>
      <trkpt lat="34.128890" lon="-117.922260">
        <ele>175.808</ele>
        <time>2018-12-29T10:08:53Z</time>
      </trkpt>
      <trkpt lat="34.129080" lon="-117.922880">
        <ele>176.095</ele>
        <time>2018-12-29T10:09:13Z</time>
      </trkpt>
      <trkpt lat="34.129150" lon="-117.923080">
        <ele>176.143</ele>
        <time>2018-12-29T10:09:33Z</time>
      </trkpt>
      <trkpt lat="34.129240" lon="-117.923320">
        <ele>176.388</ele>
        <time>2018-12-29T10:09:53Z</time>
      </trkpt>
      <trkpt lat="34.129390" lon="-117.923660">
        <ele>176.639</ele>
        <time>2018-12-29T10:10:13Z</time>
      </trkpt>
      <trkpt lat="34.129800" lon="-117.924560">
        <ele>177.414</ele>
        <time>2018-12-29T10:10:33Z</time>
      </trkpt>
      <trkpt lat="34.129990" lon="-117.924980">
        <ele>177.995</ele>
        <time>2018-12-29T10:10:53Z</time>
      </trkpt>
      <trkpt lat="34.130100" lon="-117.925200">
        <ele>178.288</ele>
        <time>2018-12-29T10:11:13Z</time>
      </trkpt>
      <trkpt lat="34.130240" lon="-117.925510">
        <ele>178.268</ele>
        <time>2018-12-29T10:11:33Z</time>
      </trkpt>
      <trkpt lat="34.130370" lon="-117.925830">
        <ele>178.289</ele>
        <time>2018-12-29T10:11:53Z</time>
      </trkpt>
      <trkpt lat="34.130470" lon="-117.926120">
        <ele>177.306</ele>
        <time>2018-12-29T10:12:13Z</time>
      </trkpt>
      <trkpt lat="34.130580" lon="-117.926440">
        <ele>172.626</ele>
        <time>2018-12-29T10:12:33Z</time>
      </trkpt>
      <trkpt lat="34.130640" lon="-117.926650">
        <ele>170.208</ele>
        <time>2018-12-29T10:12:53Z</time>
      </trkpt>
      <trkpt lat="34.130690" lon="-117.926870">
        <ele>169.351</ele>
        <time>2018-12-29T10:13:13Z</time>
      </trkpt>
      <trkpt lat="34.130740" lon="-117.927110">
        <ele>168.689</ele>
        <time>2018-12-29T10:13:33Z</time>
      </trkpt>
      <trkpt lat="34.130790" lon="-117.927360">
        <ele>168.374</ele>
        <time>2018-12-29T10:13:53Z</time>
      </trkpt>
      <trkpt lat="34.130830" lon="-117.927610">
        <ele>167.765</ele>
        <time>2018-12-29T10:14:13Z</time>
      </trkpt>
      <trkpt lat="34.130860" lon="-117.927870">
        <ele>167.370</ele>
        <time>2018-12-29T10:14:33Z</time>
      </trkpt>
      <trkpt lat="34.130880" lon="-117.928090">
        <ele>167.171</ele>
        <time>2018-12-29T10:14:53Z</time>
      </trkpt>
      <trkpt lat="34.130890" lon="-117.928380">
        <ele>167.014</ele>
        <time>2018-12-29T10:15:13Z</time>
      </trkpt>
      <trkpt lat="34.130900" lon="-117.928620">
        <ele>166.944</ele>
        <time>2018-12-29T10:15:33Z</time>
      </trkpt>
      <trkpt lat="34.130900" lon="-117.928770">
        <ele>166.761</ele>
        <time>2018-12-29T10:15:53Z</time>
      </trkpt>
      <trkpt lat="34.130900" lon="-117.928930">
        <ele>166.721</ele>
        <time>2018-12-29T10:16:13Z</time>
      </trkpt>
      <trkpt lat="34.130890" lon="-117.929130">
        <ele>166.513</ele>
        <time>2018-12-29T10:16:33Z</time>
      </trkpt>
      <trkpt lat="34.130860" lon="-117.929420">
        <ele>166.108</ele>
        <time>2018-12-29T10:16:53Z</time>
      </trkpt>
      <trkpt lat="34.130840" lon="-117.929660">
        <ele>165.899</ele>
        <time>2018-12-29T10:17:13Z</time>
      </trkpt>
      <trkpt lat="34.130800" lon="-117.929900">
        <ele>165.527</ele>
        <time>2018-12-29T10:17:33Z</time>
      </trkpt>
      <trkpt lat="34.130710" lon="-117.930360">
        <ele>165.472</ele>
        <time>2018-12-29T10:17:53Z</time>
      </trkpt>
      <trkpt lat="34.130670" lon="-117.930560">
        <ele>165.613</ele>
        <time>2018-12-29T10:18:13Z</time>
      </trkpt>
      <trkpt lat="34.130630" lon="-117.930740">
        <ele>165.948</ele>
        <time>2018-12-29T10:18:33Z</time>
      </trkpt>
      <trkpt lat="34.130550" lon="-117.931080">
        <ele>166.049</ele>
        <time>2018-12-29T10:18:53Z</time>
      </trkpt>
      <trkpt lat="34.130410" lon="-117.931640">
        <ele>167.462</ele>
        <time>2018-12-29T10:19:13Z</time>
      </trkpt>
      <trkpt lat="34.130250" lon="-117.932290">
        <ele>171.642</ele>
        <time>2018-12-29T10:19:33Z</time>
      </trkpt>
      <trkpt lat="34.130050" lon="-117.933130">
        <ele>172.422</ele>
        <time>2018-12-29T10:19:53Z</time>
      </trkpt>
      <trkpt lat="34.129950" lon="-117.933530">
        <ele>173.262</ele>
        <time>2018-12-29T10:20:13Z</time>
      </trkpt>
      <trkpt lat="34.129920" lon="-117.933670">
        <ele>173.708</ele>
        <time>2018-12-29T10:20:33Z</time>
      </trkpt>
      <trkpt lat="34.129710" lon="-117.934520">
        <ele>174.408</ele>
        <time>2018-12-29T10:20:53Z</time>
      </trkpt>
      <trkpt lat="34.129490" lon="-117.935420">
        <ele>173.385</ele>
        <time>2018-12-29T10:21:13Z</time>
      </trkpt>
      <trkpt lat="34.129190" lon="-117.936700">
        <ele>171.963</ele>
        <time>2018-12-29T10:21:33Z</time>
      </trkpt>
      <trkpt lat="34.129120" lon="-117.937040">
        <ele>171.918</ele>
        <time>2018-12-29T10:21:53Z</time>
      </trkpt>
      <trkpt lat="34.129070" lon="-117.937310">
        <ele>172.199</ele>
        <time>2018-12-29T10:22:13Z</time>
      </trkpt>
      <trkpt lat="34.129010" lon="-117.937770">
        <ele>171.994</ele>
        <time>2018-12-29T10:22:33Z</time>
      </trkpt>
      <trkpt lat="34.128970" lon="-117.938240">
        <ele>171.835</ele>
        <time>2018-12-29T10:22:53Z</time>
      </trkpt>
      <trkpt lat="34.128950" lon="-117.938730">
        <ele>171.768</ele>
        <time>2018-12-29T10:23:13Z</time>
      </trkpt>
      <trkpt lat="34.128940" lon="-117.939110">
        <ele>171.458</ele>
        <time>2018-12-29T10:23:33Z</time>
      </trkpt>
      <trkpt lat="34.128950" lon="-117.939520">
        <ele>171.119</ele>
        <time>2018-12-29T10:23:53Z</time>
      </trkpt>
      <trkpt lat="34.128970" lon="-117.939820">
        <ele>171.109</ele>
        <time>2018-12-29T10:24:13Z</time>
      </trkpt>
      <trkpt lat="34.129010" lon="-117.940190">
        <ele>170.919</ele>
        <time>2018-12-29T10:24:33Z</time>
      </trkpt>
      <trkpt lat="34.129050" lon="-117.940510">
        <ele>170.608</ele>
        <time>2018-12-29T10:24:53Z</time>
      </trkpt>
      <trkpt lat="34.129130" lon="-117.940950">
        <ele>170.434</ele>
        <time>2018-12-29T10:25:13Z</time>
      </trkpt>
      <trkpt lat="34.129230" lon="-117.941430">
        <ele>170.592</ele>
        <time>2018-12-29T10:25:33Z</time>
      </trkpt>
      <trkpt lat="34.129420" lon="-117.942080">
        <ele>170.857</ele>
        <time>2018-12-29T10:25:53Z</time>
      </trkpt>
      <trkpt lat="34.129630" lon="-117.942650">
        <ele>170.878</ele>
        <time>2018-12-29T10:26:13Z</time>
      </trkpt>
      <trkpt lat="34.130340" lon="-117.944640">
        <ele>171.563</ele>
        <time>2018-12-29T10:26:33Z</time>
      </trkpt>
      <trkpt lat="34.130850" lon="-117.946090">
        <ele>170.674</ele>
        <time>2018-12-29T10:26:53Z</time>
      </trkpt>
      <trkpt lat="34.131300" lon="-117.947340">
        <ele>170.067</ele>
        <time>2018-12-29T10:27:13Z</time>
      </trkpt>
      <trkpt lat="34.131500" lon="-117.947880">
        <ele>169.887</ele>
        <time>2018-12-29T10:27:33Z</time>
      </trkpt>
      <trkpt lat="34.131660" lon="-117.948310">
        <ele>168.036</ele>
        <time>2018-12-29T10:27:53Z</time>
      </trkpt>
      <trkpt lat="34.131670" lon="-117.948340">
        <ele>167.917</ele>
        <time>2018-12-29T10:28:13Z</time>
      </trkpt>
      <trkpt lat="34.131860" lon="-117.948890">
        <ele>165.918</ele>
        <time>2018-12-29T10:28:33Z</time>
      </trkpt>
      <trkpt lat="34.132050" lon="-117.949400">
        <ele>165.708</ele>
        <time>2018-12-29T10:28:53Z</time>
      </trkpt>
      <trkpt lat="34.132450" lon="-117.950470">
        <ele>166.046</ele>
        <time>2018-12-29T10:29:13Z</time>
      </trkpt>
      <trkpt lat="34.132760" lon="-117.951340">
        <ele>165.444</ele>
        <time>2018-12-29T10:29:33Z</time>
      </trkpt>
      <trkpt lat="34.132920" lon="-117.951810">
        <ele>165.189</ele>
        <time>2018-12-29T10:29:53Z</time>
      </trkpt>
      <trkpt lat="34.132923" lon="-117.951811">
        <ele>165.150</ele>
        <time>2018-12-29T10:30:13Z</time>
      </trkpt>
      <trkpt lat="34.133010" lon="-117.951860">
        <ele>165.065</ele>
        <time>2018-12-29T10:30:33Z</time>
      </trkpt>
      <trkpt lat="34.133030" lon="-117.951880">
        <ele>165.056</ele>
        <time>2018-12-29T10:30:53Z</time>
      </trkpt>
      <trkpt lat="34.133030" lon="-117.951890">
        <ele>164.959</ele>
        <time>2018-12-29T10:31:13Z</time>
      </trkpt>
      <trkpt lat="34.133040" lon="-117.951900">
        <ele>164.989</ele>
        <time>2018-12-29T10:31:33Z</time>
      </trkpt>
      <trkpt lat="34.133050" lon="-117.951920">
        <ele>164.987</ele>
        <time>2018-12-29T10:31:53Z</time>
      </trkpt>
      <trkpt lat="34.133060" lon="-117.951930">
        <ele>164.942</ele>
        <time>2018-12-29T10:32:13Z</time>
      </trkpt>
      <trkpt lat="34.133080" lon="-117.951970">
        <ele>164.826</ele>
        <time>2018-12-29T10:32:33Z</time>
      </trkpt>
      <trkpt lat="34.133150" lon="-117.952140">
        <ele>164.508</ele>
        <time>2018-12-29T10:32:53Z</time>
      </trkpt>
      <trkpt lat="34.133250" lon="-117.952420">
        <ele>164.241</ele>
        <time>2018-12-29T10:33:13Z</time>
      </trkpt>
      <trkpt lat="34.133370" lon="-117.952760">
        <ele>163.939</ele>
        <time>2018-12-29T10:33:33Z</time>
      </trkpt>
      <trkpt lat="34.133470" lon="-117.953050">
        <ele>163.534</ele>
        <time>2018-12-29T10:33:53Z</time>
      </trkpt>
      <trkpt lat="34.133610" lon="-117.953450">
        <ele>163.175</ele>
        <time>2018-12-29T10:34:13Z</time>
      </trkpt>
      <trkpt lat="34.133840" lon="-117.954130">
        <ele>162.190</ele>
        <time>2018-12-29T10:34:33Z</time>
      </trkpt>
      <trkpt lat="34.134030" lon="-117.954660">
        <ele>161.391</ele>
        <time>2018-12-29T10:34:53Z</time>
      </trkpt>
      <trkpt lat="34.134100" lon="-117.954860">
        <ele>160.984</ele>
        <time>2018-12-29T10:35:13Z</time>
      </trkpt>
      <trkpt lat="34.134140" lon="-117.954970">
        <ele>160.814</ele>
        <time>2018-12-29T10:35:33Z</time>
      </trkpt>
      <trkpt lat="34.134160" lon="-117.955060">
        <ele>160.733</ele>
        <time>2018-12-29T10:35:53Z</time>
      </trkpt>
      <trkpt lat="34.134210" lon="-117.955210">
        <ele>160.423</ele>
        <time>2018-12-29T10:36:13Z</time>
      </trkpt>
      <trkpt lat="34.134240" lon="-117.955350">
        <ele>160.115</ele>
        <time>2018-12-29T10:36:33Z</time>
      </trkpt>
      <trkpt lat="34.134260" lon="-117.955460">
        <ele>159.808</ele>
        <time>2018-12-29T10:36:53Z</time>
      </trkpt>
      <trkpt lat="34.134280" lon="-117.955600">
        <ele>159.646</ele>
        <time>2018-12-29T10:37:13Z</time>
      </trkpt>
      <trkpt lat="34.134290" lon="-117.955730">
        <ele>159.474</ele>
        <time>2018-12-29T10:37:33Z</time>
      </trkpt>
      <trkpt lat="34.134300" lon="-117.955900">
        <ele>159.329</ele>
        <time>2018-12-29T10:37:53Z</time>
      </trkpt>
      <trkpt lat="34.134300" lon="-117.956020">
        <ele>159.440</ele>
        <time>2018-12-29T10:38:13Z</time>
      </trkpt>
      <trkpt lat="34.134300" lon="-117.956120">
        <ele>159.525</ele>
        <time>2018-12-29T10:38:33Z</time>
      </trkpt>
      <trkpt lat="34.134300" lon="-117.956180">
        <ele>159.536</ele>
        <time>2018-12-29T10:38:53Z</time>
      </trkpt>
      <trkpt lat="34.134290" lon="-117.956270">
        <ele>159.669</ele>
        <time>2018-12-29T10:39:13Z</time>
      </trkpt>
      <trkpt lat="34.134280" lon="-117.956440">
        <ele>159.859</ele>
        <time>2018-12-29T10:39:33Z</time>
      </trkpt>
      <trkpt lat="34.134260" lon="-117.956580">
        <ele>159.924</ele>
        <time>2018-12-29T10:39:53Z</time>
      </trkpt>
      <trkpt lat="34.134250" lon="-117.956640">
        <ele>159.904</ele>
        <time>2018-12-29T10:40:13Z</time>
      </trkpt>
      <trkpt lat="34.134240" lon="-117.956670">
        <ele>159.914</ele>
        <time>2018-12-29T10:40:33Z</time>
      </trkpt>
      <trkpt lat="34.134230" lon="-117.956730">
        <ele>159.908</ele>
        <time>2018-12-29T10:40:53Z</time>
      </trkpt>
      <trkpt lat="34.134220" lon="-117.956740">
        <ele>159.915</ele>
        <time>2018-12-29T10:41:13Z</time>
      </trkpt>
      <trkpt lat="34.134200" lon="-117.956840">
        <ele>159.933</ele>
        <time>2018-12-29T10:41:33Z</time>
      </trkpt>
      <trkpt lat="34.134160" lon="-117.956970">
        <ele>159.858</ele>
        <time>2018-12-29T10:41:53Z</time>
      </trkpt>
      <trkpt lat="34.134120" lon="-117.957100">
        <ele>159.859</ele>
        <time>2018-12-29T10:42:13Z</time>
      </trkpt>
      <trkpt lat="34.134110" lon="-117.957130">
        <ele>159.884</ele>
        <time>2018-12-29T10:42:33Z</time>
      </trkpt>
      <trkpt lat="34.134100" lon="-117.957150">
        <ele>159.885</ele>
        <time>2018-12-29T10:42:53Z</time>
      </trkpt>
      <trkpt lat="34.134080" lon="-117.957200">
        <ele>159.888</ele>
        <time>2018-12-29T10:43:13Z</time>
      </trkpt>
      <trkpt lat="34.134040" lon="-117.957310">
        <ele>159.758</ele>
        <time>2018-12-29T10:43:33Z</time>
      </trkpt>
      <trkpt lat="34.134000" lon="-117.957390">
        <ele>159.767</ele>
        <time>2018-12-29T10:43:53Z</time>
      </trkpt>
      <trkpt lat="34.133970" lon="-117.957460">
        <ele>159.781</ele>
        <time>2018-12-29T10:44:13Z</time>
      </trkpt>
      <trkpt lat="34.133940" lon="-117.957520">
        <ele>159.619</ele>
        <time>2018-12-29T10:44:33Z</time>
      </trkpt>
      <trkpt lat="34.133900" lon="-117.957590">
        <ele>159.508</ele>
        <time>2018-12-29T10:44:53Z</time>
      </trkpt>
      <trkpt lat="34.133810" lon="-117.957730">
        <ele>159.439</ele>
        <time>2018-12-29T10:45:13Z</time>
      </trkpt>
      <trkpt lat="34.133720" lon="-117.957870">
        <ele>159.337</ele>
        <time>2018-12-29T10:45:33Z</time>
      </trkpt>
      <trkpt lat="34.133640" lon="-117.957980">
        <ele>159.182</ele>
        <time>2018-12-29T10:45:53Z</time>
      </trkpt>
      <trkpt lat="34.133590" lon="-117.958040">
        <ele>159.033</ele>
        <time>2018-12-29T10:46:13Z</time>
      </trkpt>
      <trkpt lat="34.133480" lon="-117.958150">
        <ele>158.888</ele>
        <time>2018-12-29T10:46:33Z</time>
      </trkpt>
      <trkpt lat="34.133420" lon="-117.958220">
        <ele>158.679</ele>
        <time>2018-12-29T10:46:53Z</time>
      </trkpt>
      <trkpt lat="34.133350" lon="-117.958280">
        <ele>158.472</ele>
        <time>2018-12-29T10:47:13Z</time>
      </trkpt>
      <trkpt lat="34.133290" lon="-117.958340">
        <ele>158.262</ele>
        <time>2018-12-29T10:47:33Z</time>
      </trkpt>
      <trkpt lat="34.133180" lon="-117.958420">
        <ele>158.044</ele>
        <time>2018-12-29T10:47:53Z</time>
      </trkpt>
      <trkpt lat="34.132920" lon="-117.958610">
        <ele>157.405</ele>
        <time>2018-12-29T10:48:13Z</time>
      </trkpt>
      <trkpt lat="34.132860" lon="-117.958670">
        <ele>157.115</ele>
        <time>2018-12-29T10:48:33Z</time>
      </trkpt>
      <trkpt lat="34.132810" lon="-117.958750">
        <ele>156.908</ele>
        <time>2018-12-29T10:48:53Z</time>
      </trkpt>
      <trkpt lat="34.132814" lon="-117.958745">
        <ele>156.937</ele>
        <time>2018-12-29T10:49:13Z</time>
      </trkpt>
      <trkpt lat="34.132680" lon="-117.958860">
        <ele>156.315</ele>
        <time>2018-12-29T10:49:33Z</time>
      </trkpt>
      <trkpt lat="34.132610" lon="-117.958920">
        <ele>156.020</ele>
        <time>2018-12-29T10:49:53Z</time>
      </trkpt>
      <trkpt lat="34.132330" lon="-117.959170">
        <ele>155.091</ele>
        <time>2018-12-29T10:50:13Z</time>
      </trkpt>
      <trkpt lat="34.132180" lon="-117.959280">
        <ele>154.586</ele>
        <time>2018-12-29T10:50:33Z</time>
      </trkpt>
      <trkpt lat="34.131930" lon="-117.959470">
        <ele>153.727</ele>
        <time>2018-12-29T10:50:53Z</time>
      </trkpt>
      <trkpt lat="34.131320" lon="-117.959910">
        <ele>153.240</ele>
        <time>2018-12-29T10:51:13Z</time>
      </trkpt>
      <trkpt lat="34.131220" lon="-117.959980">
        <ele>153.110</ele>
        <time>2018-12-29T10:51:33Z</time>
      </trkpt>
      <trkpt lat="34.131110" lon="-117.960070">
        <ele>153.144</ele>
        <time>2018-12-29T10:51:53Z</time>
      </trkpt>
      <trkpt lat="34.130770" lon="-117.960390">
        <ele>153.305</ele>
        <time>2018-12-29T10:52:13Z</time>
      </trkpt>
      <trkpt lat="34.130430" lon="-117.960640">
        <ele>153.815</ele>
        <time>2018-12-29T10:52:33Z</time>
      </trkpt>
      <trkpt lat="34.129770" lon="-117.961140">
        <ele>153.008</ele>
        <time>2018-12-29T10:52:53Z</time>
      </trkpt>
      <trkpt lat="34.129530" lon="-117.961330">
        <ele>152.617</ele>
        <time>2018-12-29T10:53:13Z</time>
      </trkpt>
      <trkpt lat="34.129290" lon="-117.961540">
        <ele>152.395</ele>
        <time>2018-12-29T10:53:33Z</time>
      </trkpt>
      <trkpt lat="34.129070" lon="-117.961730">
        <ele>151.780</ele>
        <time>2018-12-29T10:53:53Z</time>
      </trkpt>
      <trkpt lat="34.128850" lon="-117.961910">
        <ele>151.441</ele>
        <time>2018-12-29T10:54:13Z</time>
      </trkpt>
      <trkpt lat="34.128620" lon="-117.962110">
        <ele>150.976</ele>
        <time>2018-12-29T10:54:33Z</time>
      </trkpt>
      <trkpt lat="34.128260" lon="-117.962420">
        <ele>150.157</ele>
        <time>2018-12-29T10:54:53Z</time>
      </trkpt>
      <trkpt lat="34.127960" lon="-117.962720">
        <ele>149.440</ele>
        <time>2018-12-29T10:55:13Z</time>
      </trkpt>
      <trkpt lat="34.127820" lon="-117.962860">
        <ele>149.240</ele>
        <time>2018-12-29T10:55:33Z</time>
      </trkpt>
      <trkpt lat="34.127300" lon="-117.963410">
        <ele>148.071</ele>
        <time>2018-12-29T10:55:53Z</time>
      </trkpt>
      <trkpt lat="34.127070" lon="-117.963660">
        <ele>147.241</ele>
        <time>2018-12-29T10:56:13Z</time>
      </trkpt>
      <trkpt lat="34.126840" lon="-117.963900">
        <ele>146.815</ele>
        <time>2018-12-29T10:56:33Z</time>
      </trkpt>
      <trkpt lat="34.126100" lon="-117.964620">
        <ele>155.408</ele>
        <time>2018-12-29T10:56:53Z</time>
      </trkpt>
      <trkpt lat="34.125890" lon="-117.964850">
        <ele>155.570</ele>
        <time>2018-12-29T10:57:13Z</time>
      </trkpt>
      <trkpt lat="34.125330" lon="-117.965440">
        <ele>151.888</ele>
        <time>2018-12-29T10:57:33Z</time>
      </trkpt>
      <trkpt lat="34.124870" lon="-117.965920">
        <ele>147.483</ele>
        <time>2018-12-29T10:57:53Z</time>
      </trkpt>
      <trkpt lat="34.124120" lon="-117.966700">
        <ele>146.654</ele>
        <time>2018-12-29T10:58:13Z</time>
      </trkpt>
      <trkpt lat="34.123490" lon="-117.967360">
        <ele>146.179</ele>
        <time>2018-12-29T10:58:33Z</time>
      </trkpt>
      <trkpt lat="34.122790" lon="-117.968100">
        <ele>145.840</ele>
        <time>2018-12-29T10:58:53Z</time>
      </trkpt>
      <trkpt lat="34.122300" lon="-117.968610">
        <ele>145.473</ele>
        <time>2018-12-29T10:59:13Z</time>
      </trkpt>
      <trkpt lat="34.121640" lon="-117.969300">
        <ele>140.963</ele>
        <time>2018-12-29T10:59:33Z</time>
      </trkpt>
      <trkpt lat="34.121010" lon="-117.969960">
        <ele>140.064</ele>
        <time>2018-12-29T10:59:53Z</time>
      </trkpt>
      <trkpt lat="34.120790" lon="-117.970190">
        <ele>140.106</ele>
        <time>2018-12-29T11:00:13Z</time>
      </trkpt>
      <trkpt lat="34.120450" lon="-117.970540">
        <ele>139.916</ele>
        <time>2018-12-29T11:00:33Z</time>
      </trkpt>
      <trkpt lat="34.120100" lon="-117.970920">
        <ele>139.908</ele>
        <time>2018-12-29T11:00:53Z</time>
      </trkpt>
      <trkpt lat="34.119760" lon="-117.971330">
        <ele>139.619</ele>
        <time>2018-12-29T11:01:13Z</time>
      </trkpt>
      <trkpt lat="34.119500" lon="-117.971650">
        <ele>139.237</ele>
        <time>2018-12-29T11:01:33Z</time>
      </trkpt>
      <trkpt lat="34.119340" lon="-117.971870">
        <ele>138.742</ele>
        <time>2018-12-29T11:01:53Z</time>
      </trkpt>
      <trkpt lat="34.118990" lon="-117.972350">
        <ele>135.583</ele>
        <time>2018-12-29T11:02:13Z</time>
      </trkpt>
      <trkpt lat="34.118610" lon="-117.972920">
        <ele>134.498</ele>
        <time>2018-12-29T11:02:33Z</time>
      </trkpt>
      <trkpt lat="34.118510" lon="-117.973080">
        <ele>134.169</ele>
        <time>2018-12-29T11:02:53Z</time>
      </trkpt>
      <trkpt lat="34.118450" lon="-117.973180">
        <ele>133.972</ele>
        <time>2018-12-29T11:03:13Z</time>
      </trkpt>
      <trkpt lat="34.118370" lon="-117.973320">
        <ele>133.792</ele>
        <time>2018-12-29T11:03:33Z</time>
      </trkpt>
      <trkpt lat="34.118250" lon="-117.973520">
        <ele>133.368</ele>
        <time>2018-12-29T11:03:53Z</time>
      </trkpt>
      <trkpt lat="34.117760" lon="-117.974330">
        <ele>131.742</ele>
        <time>2018-12-29T11:04:13Z</time>
      </trkpt>
      <trkpt lat="34.117580" lon="-117.974630">
        <ele>131.126</ele>
        <time>2018-12-29T11:04:33Z</time>
      </trkpt>
      <trkpt lat="34.117050" lon="-117.975530">
        <ele>129.808</ele>
        <time>2018-12-29T11:04:53Z</time>
      </trkpt>
      <trkpt lat="34.116790" lon="-117.975900">
        <ele>129.119</ele>
        <time>2018-12-29T11:05:13Z</time>
      </trkpt>
      <trkpt lat="34.116670" lon="-117.976120">
        <ele>128.797</ele>
        <time>2018-12-29T11:05:33Z</time>
      </trkpt>
      <trkpt lat="34.116450" lon="-117.976450">
        <ele>128.472</ele>
        <time>2018-12-29T11:05:53Z</time>
      </trkpt>
      <trkpt lat="34.116240" lon="-117.976700">
        <ele>126.553</ele>
        <time>2018-12-29T11:06:13Z</time>
      </trkpt>
      <trkpt lat="34.116050" lon="-117.976920">
        <ele>124.438</ele>
        <time>2018-12-29T11:06:33Z</time>
      </trkpt>
      <trkpt lat="34.115910" lon="-117.977070">
        <ele>126.859</ele>
        <time>2018-12-29T11:06:53Z</time>
      </trkpt>
      <trkpt lat="34.115510" lon="-117.977490">
        <ele>127.832</ele>
        <time>2018-12-29T11:07:13Z</time>
      </trkpt>
      <trkpt lat="34.115110" lon="-117.977860">
        <ele>126.972</ele>
        <time>2018-12-29T11:07:33Z</time>
      </trkpt>
      <trkpt lat="34.114940" lon="-117.978010">
        <ele>126.748</ele>
        <time>2018-12-29T11:07:53Z</time>
      </trkpt>
      <trkpt lat="34.114920" lon="-117.978020">
        <ele>126.761</ele>
        <time>2018-12-29T11:08:13Z</time>
      </trkpt>
      <trkpt lat="34.114850" lon="-117.978080">
        <ele>126.617</ele>
        <time>2018-12-29T11:08:33Z</time>
      </trkpt>
      <trkpt lat="34.114620" lon="-117.978250">
        <ele>126.108</ele>
        <time>2018-12-29T11:08:53Z</time>
      </trkpt>
      <trkpt lat="34.114390" lon="-117.978410">
        <ele>125.837</ele>
        <time>2018-12-29T11:09:13Z</time>
      </trkpt>
      <trkpt lat="34.114150" lon="-117.978560">
        <ele>125.315</ele>
        <time>2018-12-29T11:09:33Z</time>
      </trkpt>
      <trkpt lat="34.113840" lon="-117.978750">
        <ele>124.760</ele>
        <time>2018-12-29T11:09:53Z</time>
      </trkpt>
      <trkpt lat="34.113530" lon="-117.978920">
        <ele>124.021</ele>
        <time>2018-12-29T11:10:13Z</time>
      </trkpt>
      <trkpt lat="34.112860" lon="-117.979260">
        <ele>123.486</ele>
        <time>2018-12-29T11:10:33Z</time>
      </trkpt>
      <trkpt lat="34.111280" lon="-117.980080">
        <ele>111.777</ele>
        <time>2018-12-29T11:10:53Z</time>
      </trkpt>
      <trkpt lat="34.109560" lon="-117.980970">
        <ele>121.930</ele>
        <time>2018-12-29T11:11:13Z</time>
      </trkpt>
      <trkpt lat="34.109120" lon="-117.981210">
        <ele>120.160</ele>
        <time>2018-12-29T11:11:33Z</time>
      </trkpt>
      <trkpt lat="34.108490" lon="-117.981530">
        <ele>109.175</ele>
        <time>2018-12-29T11:11:53Z</time>
      </trkpt>
      <trkpt lat="34.107820" lon="-117.981870">
        <ele>108.528</ele>
        <time>2018-12-29T11:12:13Z</time>
      </trkpt>
      <trkpt lat="34.107520" lon="-117.982030">
        <ele>109.720</ele>
        <time>2018-12-29T11:12:33Z</time>
      </trkpt>
      <trkpt lat="34.106800" lon="-117.982400">
        <ele>118.308</ele>
        <time>2018-12-29T11:12:53Z</time>
      </trkpt>
      <trkpt lat="34.106500" lon="-117.982530">
        <ele>117.360</ele>
        <time>2018-12-29T11:13:13Z</time>
      </trkpt>
      <trkpt lat="34.106470" lon="-117.982540">
        <ele>117.258</ele>
        <time>2018-12-29T11:13:33Z</time>
      </trkpt>
      <trkpt lat="34.105800" lon="-117.982900">
        <ele>110.563</ele>
        <time>2018-12-29T11:13:53Z</time>
      </trkpt>
      <trkpt lat="34.105380" lon="-117.983110">
        <ele>107.424</ele>
        <time>2018-12-29T11:14:13Z</time>
      </trkpt>
      <trkpt lat="34.105130" lon="-117.983230">
        <ele>105.129</ele>
        <time>2018-12-29T11:14:33Z</time>
      </trkpt>
      <trkpt lat="34.104840" lon="-117.983370">
        <ele>105.150</ele>
        <time>2018-12-29T11:14:53Z</time>
      </trkpt>
      <trkpt lat="34.104370" lon="-117.983560">
        <ele>108.413</ele>
        <time>2018-12-29T11:15:13Z</time>
      </trkpt>
      <trkpt lat="34.103460" lon="-117.983860">
        <ele>113.683</ele>
        <time>2018-12-29T11:15:33Z</time>
      </trkpt>
      <trkpt lat="34.102940" lon="-117.984040">
        <ele>113.384</ele>
        <time>2018-12-29T11:15:53Z</time>
      </trkpt>
      <trkpt lat="34.102550" lon="-117.984170">
        <ele>113.207</ele>
        <time>2018-12-29T11:16:13Z</time>
      </trkpt>
      <trkpt lat="34.101830" lon="-117.984420">
        <ele>112.817</ele>
        <time>2018-12-29T11:16:33Z</time>
      </trkpt>
      <trkpt lat="34.100860" lon="-117.984730">
        <ele>112.208</ele>
        <time>2018-12-29T11:16:53Z</time>
      </trkpt>
      <trkpt lat="34.100530" lon="-117.984830">
        <ele>112.061</ele>
        <time>2018-12-29T11:17:13Z</time>
      </trkpt>
      <trkpt lat="34.100300" lon="-117.984910">
        <ele>111.879</ele>
        <time>2018-12-29T11:17:33Z</time>
      </trkpt>
      <trkpt lat="34.100260" lon="-117.984920">
        <ele>111.874</ele>
        <time>2018-12-29T11:17:53Z</time>
      </trkpt>
      <trkpt lat="34.099880" lon="-117.985050">
        <ele>111.515</ele>
        <time>2018-12-29T11:18:13Z</time>
      </trkpt>
      <trkpt lat="34.099260" lon="-117.985270">
        <ele>111.030</ele>
        <time>2018-12-29T11:18:33Z</time>
      </trkpt>
      <trkpt lat="34.098610" lon="-117.985510">
        <ele>110.291</ele>
        <time>2018-12-29T11:18:53Z</time>
      </trkpt>
      <trkpt lat="34.098230" lon="-117.985640">
        <ele>109.914</ele>
        <time>2018-12-29T11:19:13Z</time>
      </trkpt>
      <trkpt lat="34.098020" lon="-117.985710">
        <ele>109.844</ele>
        <time>2018-12-29T11:19:33Z</time>
      </trkpt>
      <trkpt lat="34.097880" lon="-117.985770">
        <ele>109.761</ele>
        <time>2018-12-29T11:19:53Z</time>
      </trkpt>
      <trkpt lat="34.097600" lon="-117.985870">
        <ele>109.621</ele>
        <time>2018-12-29T11:20:13Z</time>
      </trkpt>
      <trkpt lat="34.097280" lon="-117.986000">
        <ele>109.513</ele>
        <time>2018-12-29T11:20:33Z</time>
      </trkpt>
      <trkpt lat="34.097020" lon="-117.986130">
        <ele>109.208</ele>
        <time>2018-12-29T11:20:53Z</time>
      </trkpt>
      <trkpt lat="34.096720" lon="-117.986300">
        <ele>109.259</ele>
        <time>2018-12-29T11:21:13Z</time>
      </trkpt>
      <trkpt lat="34.096370" lon="-117.986500">
        <ele>108.977</ele>
        <time>2018-12-29T11:21:33Z</time>
      </trkpt>
      <trkpt lat="34.096200" lon="-117.986630">
        <ele>108.992</ele>
        <time>2018-12-29T11:21:53Z</time>
      </trkpt>
      <trkpt lat="34.096000" lon="-117.986770">
        <ele>108.783</ele>
        <time>2018-12-29T11:22:13Z</time>
      </trkpt>
      <trkpt lat="34.095690" lon="-117.987020">
        <ele>108.378</ele>
        <time>2018-12-29T11:22:33Z</time>
      </trkpt>
      <trkpt lat="34.095340" lon="-117.987340">
        <ele>108.029</ele>
        <time>2018-12-29T11:22:53Z</time>
      </trkpt>
      <trkpt lat="34.095140" lon="-117.987540">
        <ele>107.842</ele>
        <time>2018-12-29T11:23:13Z</time>
      </trkpt>
      <trkpt lat="34.095030" lon="-117.987670">
        <ele>107.722</ele>
        <time>2018-12-29T11:23:33Z</time>
      </trkpt>
      <trkpt lat="34.094910" lon="-117.987800">
        <ele>107.711</ele>
        <time>2018-12-29T11:23:53Z</time>
      </trkpt>
      <trkpt lat="34.094790" lon="-117.987950">
        <ele>107.621</ele>
        <time>2018-12-29T11:24:13Z</time>
      </trkpt>
      <trkpt lat="34.094690" lon="-117.988070">
        <ele>107.503</ele>
        <time>2018-12-29T11:24:33Z</time>
      </trkpt>
      <trkpt lat="34.094550" lon="-117.988250">
        <ele>107.308</ele>
        <time>2018-12-29T11:24:53Z</time>
      </trkpt>
      <trkpt lat="34.094410" lon="-117.988440">
        <ele>106.994</ele>
        <time>2018-12-29T11:25:13Z</time>
      </trkpt>
      <trkpt lat="34.093840" lon="-117.989260">
        <ele>104.562</ele>
        <time>2018-12-29T11:25:33Z</time>
      </trkpt>
      <trkpt lat="34.093540" lon="-117.989690">
        <ele>104.127</ele>
        <time>2018-12-29T11:25:53Z</time>
      </trkpt>
      <trkpt lat="34.093320" lon="-117.989990">
        <ele>103.728</ele>
        <time>2018-12-29T11:26:13Z</time>
      </trkpt>
      <trkpt lat="34.093000" lon="-117.990420">
        <ele>102.323</ele>
        <time>2018-12-29T11:26:33Z</time>
      </trkpt>
      <trkpt lat="34.092630" lon="-117.990890">
        <ele>100.554</ele>
        <time>2018-12-29T11:26:53Z</time>
      </trkpt>
      <trkpt lat="34.092470" lon="-117.991090">
        <ele>100.347</ele>
        <time>2018-12-29T11:27:13Z</time>
      </trkpt>
      <trkpt lat="34.092140" lon="-117.991480">
        <ele>99.877</ele>
        <time>2018-12-29T11:27:33Z</time>
      </trkpt>
      <trkpt lat="34.091580" lon="-117.992100">
        <ele>97.148</ele>
        <time>2018-12-29T11:27:53Z</time>
      </trkpt>
      <trkpt lat="34.091390" lon="-117.992290">
        <ele>95.961</ele>
        <time>2018-12-29T11:28:13Z</time>
      </trkpt>
      <trkpt lat="34.091170" lon="-117.992520">
        <ele>95.117</ele>
        <time>2018-12-29T11:28:33Z</time>
      </trkpt>
      <trkpt lat="34.090770" lon="-117.992910">
        <ele>95.408</ele>
        <time>2018-12-29T11:28:53Z</time>
      </trkpt>
      <trkpt lat="34.090450" lon="-117.993220">
        <ele>95.997</ele>
        <time>2018-12-29T11:29:13Z</time>
      </trkpt>
      <trkpt lat="34.090190" lon="-117.993450">
        <ele>95.815</ele>
        <time>2018-12-29T11:29:33Z</time>
      </trkpt>
      <trkpt lat="34.090040" lon="-117.993580">
        <ele>96.120</ele>
        <time>2018-12-29T11:29:53Z</time>
      </trkpt>
      <trkpt lat="34.089450" lon="-117.994080">
        <ele>96.781</ele>
        <time>2018-12-29T11:30:13Z</time>
      </trkpt>
      <trkpt lat="34.089250" lon="-117.994240">
        <ele>96.756</ele>
        <time>2018-12-29T11:30:33Z</time>
      </trkpt>
      <trkpt lat="34.088420" lon="-117.994830">
        <ele>97.497</ele>
        <time>2018-12-29T11:30:53Z</time>
      </trkpt>
      <trkpt lat="34.088080" lon="-117.995050">
        <ele>98.090</ele>
        <time>2018-12-29T11:31:13Z</time>
      </trkpt>
      <trkpt lat="34.087760" lon="-117.995270">
        <ele>98.570</ele>
        <time>2018-12-29T11:31:33Z</time>
      </trkpt>
      <trkpt lat="34.087190" lon="-117.995640">
        <ele>98.823</ele>
        <time>2018-12-29T11:31:53Z</time>
      </trkpt>
      <trkpt lat="34.086920" lon="-117.995810">
        <ele>100.283</ele>
        <time>2018-12-29T11:32:13Z</time>
      </trkpt>
      <trkpt lat="34.086680" lon="-117.995940">
        <ele>100.811</ele>
        <time>2018-12-29T11:32:33Z</time>
      </trkpt>
      <trkpt lat="34.086470" lon="-117.996060">
        <ele>100.908</ele>
        <time>2018-12-29T11:32:53Z</time>
      </trkpt>
      <trkpt lat="34.086160" lon="-117.996220">
        <ele>100.955</ele>
        <time>2018-12-29T11:33:13Z</time>
      </trkpt>
      <trkpt lat="34.085730" lon="-117.996430">
        <ele>101.033</ele>
        <time>2018-12-29T11:33:33Z</time>
      </trkpt>
      <trkpt lat="34.085290" lon="-117.996640">
        <ele>100.068</ele>
        <time>2018-12-29T11:33:53Z</time>
      </trkpt>
      <trkpt lat="34.084880" lon="-117.996810">
        <ele>99.639</ele>
        <time>2018-12-29T11:34:13Z</time>
      </trkpt>
      <trkpt lat="34.084610" lon="-117.996930">
        <ele>99.434</ele>
        <time>2018-12-29T11:34:33Z</time>
      </trkpt>
      <trkpt lat="34.084250" lon="-117.997070">
        <ele>98.765</ele>
        <time>2018-12-29T11:34:53Z</time>
      </trkpt>
      <trkpt lat="34.083870" lon="-117.997200">
        <ele>98.518</ele>
        <time>2018-12-29T11:35:13Z</time>
      </trkpt>
      <trkpt lat="34.083540" lon="-117.997310">
        <ele>98.498</ele>
        <time>2018-12-29T11:35:33Z</time>
      </trkpt>
      <trkpt lat="34.083160" lon="-117.997430">
        <ele>98.315</ele>
        <time>2018-12-29T11:35:53Z</time>
      </trkpt>
      <trkpt lat="34.082760" lon="-117.997540">
        <ele>98.165</ele>
        <time>2018-12-29T11:36:13Z</time>
      </trkpt>
      <trkpt lat="34.082400" lon="-117.997640">
        <ele>97.811</ele>
        <time>2018-12-29T11:36:33Z</time>
      </trkpt>
      <trkpt lat="34.081950" lon="-117.997750">
        <ele>97.208</ele>
        <time>2018-12-29T11:36:53Z</time>
      </trkpt>
      <trkpt lat="34.081580" lon="-117.997830">
        <ele>96.864</ele>
        <time>2018-12-29T11:37:13Z</time>
      </trkpt>
      <trkpt lat="34.081120" lon="-117.997900">
        <ele>96.272</ele>
        <time>2018-12-29T11:37:33Z</time>
      </trkpt>
      <trkpt lat="34.080910" lon="-117.997930">
        <ele>95.957</ele>
        <time>2018-12-29T11:37:53Z</time>
      </trkpt>
      <trkpt lat="34.080630" lon="-117.997960">
        <ele>95.548</ele>
        <time>2018-12-29T11:38:13Z</time>
      </trkpt>
      <trkpt lat="34.080300" lon="-117.997990">
        <ele>95.333</ele>
        <time>2018-12-29T11:38:33Z</time>
      </trkpt>
      <trkpt lat="34.079820" lon="-117.998040">
        <ele>95.474</ele>
        <time>2018-12-29T11:38:53Z</time>
      </trkpt>
      <trkpt lat="34.079340" lon="-117.998080">
        <ele>95.637</ele>
        <time>2018-12-29T11:39:13Z</time>
      </trkpt>
      <trkpt lat="34.078950" lon="-117.998100">
        <ele>95.677</ele>
        <time>2018-12-29T11:39:33Z</time>
      </trkpt>
      <trkpt lat="34.078600" lon="-117.998120">
        <ele>95.772</ele>
        <time>2018-12-29T11:39:53Z</time>
      </trkpt>
      <trkpt lat="34.078300" lon="-117.998130">
        <ele>95.613</ele>
        <time>2018-12-29T11:40:13Z</time>
      </trkpt>
      <trkpt lat="34.077830" lon="-117.998170">
        <ele>96.814</ele>
        <time>2018-12-29T11:40:33Z</time>
      </trkpt>
      <trkpt lat="34.077660" lon="-117.998190">
        <ele>96.508</ele>
        <time>2018-12-29T11:40:53Z</time>
      </trkpt>
      <trkpt lat="34.077500" lon="-117.998200">
        <ele>96.010</ele>
        <time>2018-12-29T11:41:13Z</time>
      </trkpt>
      <trkpt lat="34.077400" lon="-117.998220">
        <ele>95.768</ele>
        <time>2018-12-29T11:41:33Z</time>
      </trkpt>
      <trkpt lat="34.077230" lon="-117.998240">
        <ele>95.543</ele>
        <time>2018-12-29T11:41:53Z</time>
      </trkpt>
      <trkpt lat="34.077070" lon="-117.998270">
        <ele>95.474</ele>
        <time>2018-12-29T11:42:13Z</time>
      </trkpt>
      <trkpt lat="34.076940" lon="-117.998290">
        <ele>95.439</ele>
        <time>2018-12-29T11:42:33Z</time>
      </trkpt>
      <trkpt lat="34.076820" lon="-117.998310">
        <ele>95.440</ele>
        <time>2018-12-29T11:42:53Z</time>
      </trkpt>
      <trkpt lat="34.076700" lon="-117.998330">
        <ele>95.423</ele>
        <time>2018-12-29T11:43:13Z</time>
      </trkpt>
      <trkpt lat="34.076590" lon="-117.998350">
        <ele>95.353</ele>
        <time>2018-12-29T11:43:33Z</time>
      </trkpt>
      <trkpt lat="34.076430" lon="-117.998390">
        <ele>95.247</ele>
        <time>2018-12-29T11:43:53Z</time>
      </trkpt>
      <trkpt lat="34.076260" lon="-117.998430">
        <ele>95.229</ele>
        <time>2018-12-29T11:44:13Z</time>
      </trkpt>
      <trkpt lat="34.076080" lon="-117.998470">
        <ele>95.121</ele>
        <time>2018-12-29T11:44:33Z</time>
      </trkpt>
      <trkpt lat="34.075850" lon="-117.998530">
        <ele>95.108</ele>
        <time>2018-12-29T11:44:53Z</time>
      </trkpt>
      <trkpt lat="34.075570" lon="-117.998620">
        <ele>95.047</ele>
        <time>2018-12-29T11:45:13Z</time>
      </trkpt>
      <trkpt lat="34.075390" lon="-117.998670">
        <ele>94.815</ele>
        <time>2018-12-29T11:45:33Z</time>
      </trkpt>
      <trkpt lat="34.075210" lon="-117.998730">
        <ele>94.940</ele>
        <time>2018-12-29T11:45:53Z</time>
      </trkpt>
      <trkpt lat="34.074810" lon="-117.998870">
        <ele>94.691</ele>
        <time>2018-12-29T11:46:13Z</time>
      </trkpt>
      <trkpt lat="34.074440" lon="-117.999000">
        <ele>94.546</ele>
        <time>2018-12-29T11:46:33Z</time>
      </trkpt>
      <trkpt lat="34.073930" lon="-117.999150">
        <ele>94.337</ele>
        <time>2018-12-29T11:46:53Z</time>
      </trkpt>
      <trkpt lat="34.073250" lon="-117.999390">
        <ele>94.610</ele>
        <time>2018-12-29T11:47:13Z</time>
      </trkpt>
      <trkpt lat="34.072860" lon="-117.999530">
        <ele>94.890</ele>
        <time>2018-12-29T11:47:33Z</time>
      </trkpt>
      <trkpt lat="34.072580" lon="-117.999620">
        <ele>95.277</ele>
        <time>2018-12-29T11:47:53Z</time>
      </trkpt>
      <trkpt lat="34.071880" lon="-117.999880">
        <ele>95.661</ele>
        <time>2018-12-29T11:48:13Z</time>
      </trkpt>
      <trkpt lat="34.071882" lon="-117.999883">
        <ele>95.627</ele>
        <time>2018-12-29T11:48:33Z</time>
      </trkpt>
      <trkpt lat="34.070520" lon="-118.000450">
        <ele>93.008</ele>
        <time>2018-12-29T11:48:53Z</time>
      </trkpt>
      <trkpt lat="34.069990" lon="-118.000660">
        <ele>91.950</ele>
        <time>2018-12-29T11:49:13Z</time>
      </trkpt>
      <trkpt lat="34.069989" lon="-118.000663">
        <ele>91.948</ele>
        <time>2018-12-29T11:49:33Z</time>
      </trkpt>
      <trkpt lat="34.069370" lon="-118.000890">
        <ele>91.983</ele>
        <time>2018-12-29T11:49:53Z</time>
      </trkpt>
      <trkpt lat="34.069010" lon="-118.000990">
        <ele>91.984</ele>
        <time>2018-12-29T11:50:13Z</time>
      </trkpt>
      <trkpt lat="34.068940" lon="-118.001010">
        <ele>91.969</ele>
        <time>2018-12-29T11:50:33Z</time>
      </trkpt>
      <trkpt lat="34.068660" lon="-118.001070">
        <ele>91.980</ele>
        <time>2018-12-29T11:50:53Z</time>
      </trkpt>
      <trkpt lat="34.068570" lon="-118.001090">
        <ele>91.953</ele>
        <time>2018-12-29T11:51:13Z</time>
      </trkpt>
      <trkpt lat="34.068510" lon="-118.001090">
        <ele>91.963</ele>
        <time>2018-12-29T11:51:33Z</time>
      </trkpt>
      <trkpt lat="34.067940" lon="-118.001160">
        <ele>92.075</ele>
        <time>2018-12-29T11:51:53Z</time>
      </trkpt>
      <trkpt lat="34.067440" lon="-118.001210">
        <ele>92.028</ele>
        <time>2018-12-29T11:52:13Z</time>
      </trkpt>
      <trkpt lat="34.067150" lon="-118.001240">
        <ele>92.120</ele>
        <time>2018-12-29T11:52:33Z</time>
      </trkpt>
      <trkpt lat="34.066920" lon="-118.001270">
        <ele>92.108</ele>
        <time>2018-12-29T11:52:53Z</time>
      </trkpt>
      <trkpt lat="34.066740" lon="-118.001300">
        <ele>92.110</ele>
        <time>2018-12-29T11:53:13Z</time>
      </trkpt>
      <trkpt lat="34.066460" lon="-118.001340">
        <ele>92.148</ele>
        <time>2018-12-29T11:53:33Z</time>
      </trkpt>
      <trkpt lat="34.066300" lon="-118.001370">
        <ele>92.173</ele>
        <time>2018-12-29T11:53:53Z</time>
      </trkpt>
      <trkpt lat="34.066090" lon="-118.001400">
        <ele>92.164</ele>
        <time>2018-12-29T11:54:13Z</time>
      </trkpt>
      <trkpt lat="34.065960" lon="-118.001420">
        <ele>92.139</ele>
        <time>2018-12-29T11:54:33Z</time>
      </trkpt>
      <trkpt lat="34.065850" lon="-118.001460">
        <ele>92.130</ele>
        <time>2018-12-29T11:54:53Z</time>
      </trkpt>
      <trkpt lat="34.065750" lon="-118.001510">
        <ele>92.033</ele>
        <time>2018-12-29T11:55:13Z</time>
      </trkpt>
      <trkpt lat="34.065610" lon="-118.001590">
        <ele>92.033</ele>
        <time>2018-12-29T11:55:33Z</time>
      </trkpt>
      <trkpt lat="34.065500" lon="-118.001680">
        <ele>92.043</ele>
        <time>2018-12-29T11:55:53Z</time>
      </trkpt>
      <trkpt lat="34.065400" lon="-118.001790">
        <ele>92.064</ele>
        <time>2018-12-29T11:56:13Z</time>
      </trkpt>
      <trkpt lat="34.065300" lon="-118.001920">
        <ele>91.910</ele>
        <time>2018-12-29T11:56:33Z</time>
      </trkpt>
      <trkpt lat="34.065250" lon="-118.002010">
        <ele>91.908</ele>
        <time>2018-12-29T11:56:53Z</time>
      </trkpt>
      <trkpt lat="34.065200" lon="-118.002110">
        <ele>91.937</ele>
        <time>2018-12-29T11:57:13Z</time>
      </trkpt>
      <trkpt lat="34.065160" lon="-118.002210">
        <ele>91.985</ele>
        <time>2018-12-29T11:57:33Z</time>
      </trkpt>
      <trkpt lat="34.065120" lon="-118.002330">
        <ele>91.860</ele>
        <time>2018-12-29T11:57:53Z</time>
      </trkpt>
      <trkpt lat="34.065100" lon="-118.002430">
        <ele>91.861</ele>
        <time>2018-12-29T11:58:13Z</time>
      </trkpt>
      <trkpt lat="34.065060" lon="-118.002610">
        <ele>91.896</ele>
        <time>2018-12-29T11:58:33Z</time>
      </trkpt>
      <trkpt lat="34.064990" lon="-118.002910">
        <ele>91.957</ele>
        <time>2018-12-29T11:58:53Z</time>
      </trkpt>
      <trkpt lat="34.064930" lon="-118.003300">
        <ele>91.760</ele>
        <time>2018-12-29T11:59:13Z</time>
      </trkpt>
      <trkpt lat="34.064920" lon="-118.003340">
        <ele>91.570</ele>
        <time>2018-12-29T11:59:33Z</time>
      </trkpt>
      <trkpt lat="34.064910" lon="-118.003380">
        <ele>91.364</ele>
        <time>2018-12-29T11:59:53Z</time>
      </trkpt>
      <trkpt lat="34.064900" lon="-118.003430">
        <ele>91.106</ele>
        <time>2018-12-29T12:00:13Z</time>
      </trkpt>
      <trkpt lat="34.064880" lon="-118.003480">
        <ele>90.716</ele>
        <time>2018-12-29T12:00:33Z</time>
      </trkpt>
      <trkpt lat="34.064870" lon="-118.003540">
        <ele>90.208</ele>
        <time>2018-12-29T12:00:53Z</time>
      </trkpt>
      <trkpt lat="34.064850" lon="-118.003570">
        <ele>89.919</ele>
        <time>2018-12-29T12:01:13Z</time>
      </trkpt>
      <trkpt lat="34.064820" lon="-118.003610">
        <ele>89.717</ele>
        <time>2018-12-29T12:01:33Z</time>
      </trkpt>
      <trkpt lat="34.064760" lon="-118.003660">
        <ele>89.452</ele>
        <time>2018-12-29T12:01:53Z</time>
      </trkpt>
      <trkpt lat="34.064750" lon="-118.003770">
        <ele>88.733</ele>
        <time>2018-12-29T12:02:13Z</time>
      </trkpt>
      <trkpt lat="34.064700" lon="-118.004060">
        <ele>88.098</ele>
        <time>2018-12-29T12:02:33Z</time>
      </trkpt>
      <trkpt lat="34.064570" lon="-118.004860">
        <ele>87.719</ele>
        <time>2018-12-29T12:02:53Z</time>
      </trkpt>
      <trkpt lat="34.064500" lon="-118.005400">
        <ele>89.142</ele>
        <time>2018-12-29T12:03:13Z</time>
      </trkpt>
      <trkpt lat="34.064430" lon="-118.005940">
        <ele>92.152</ele>
        <time>2018-12-29T12:03:33Z</time>
      </trkpt>
      <trkpt lat="34.064340" lon="-118.006490">
        <ele>92.277</ele>
        <time>2018-12-29T12:03:53Z</time>
      </trkpt>
      <trkpt lat="34.064290" lon="-118.006860">
        <ele>92.361</ele>
        <time>2018-12-29T12:04:13Z</time>
      </trkpt>
      <trkpt lat="34.064290" lon="-118.006890">
        <ele>92.327</ele>
        <time>2018-12-29T12:04:33Z</time>
      </trkpt>
      <trkpt lat="34.064240" lon="-118.007200">
        <ele>92.408</ele>
        <time>2018-12-29T12:04:53Z</time>
      </trkpt>
      <trkpt lat="34.064200" lon="-118.007530">
        <ele>92.480</ele>
        <time>2018-12-29T12:05:13Z</time>
      </trkpt>
      <trkpt lat="34.064180" lon="-118.007760">
        <ele>92.448</ele>
        <time>2018-12-29T12:05:33Z</time>
      </trkpt>
      <trkpt lat="34.064160" lon="-118.007970">
        <ele>92.343</ele>
        <time>2018-12-29T12:05:53Z</time>
      </trkpt>
      <trkpt lat="34.064150" lon="-118.008090">
        <ele>92.394</ele>
        <time>2018-12-29T12:06:13Z</time>
      </trkpt>
      <trkpt lat="34.064150" lon="-118.008520">
        <ele>92.359</ele>
        <time>2018-12-29T12:06:33Z</time>
      </trkpt>
      <trkpt lat="34.064150" lon="-118.008730">
        <ele>92.390</ele>
        <time>2018-12-29T12:06:53Z</time>
      </trkpt>
      <trkpt lat="34.064170" lon="-118.008940">
        <ele>92.383</ele>
        <time>2018-12-29T12:07:13Z</time>
      </trkpt>
      <trkpt lat="34.064180" lon="-118.009110">
        <ele>92.313</ele>
        <time>2018-12-29T12:07:33Z</time>
      </trkpt>
      <trkpt lat="34.064200" lon="-118.009290">
        <ele>92.263</ele>
        <time>2018-12-29T12:07:53Z</time>
      </trkpt>
      <trkpt lat="34.064230" lon="-118.009460">
        <ele>92.144</ele>
        <time>2018-12-29T12:08:13Z</time>
      </trkpt>
      <trkpt lat="34.064250" lon="-118.009640">
        <ele>92.118</ele>
        <time>2018-12-29T12:08:33Z</time>
      </trkpt>
      <trkpt lat="34.064280" lon="-118.009810">
        <ele>92.108</ele>
        <time>2018-12-29T12:08:53Z</time>
      </trkpt>
      <trkpt lat="34.064390" lon="-118.010330">
        <ele>92.139</ele>
        <time>2018-12-29T12:09:13Z</time>
      </trkpt>
      <trkpt lat="34.064470" lon="-118.010720">
        <ele>92.177</ele>
        <time>2018-12-29T12:09:33Z</time>
      </trkpt>
      <trkpt lat="34.064530" lon="-118.010990">
        <ele>92.162</ele>
        <time>2018-12-29T12:09:53Z</time>
      </trkpt>
      <trkpt lat="34.064550" lon="-118.011090">
        <ele>92.173</ele>
        <time>2018-12-29T12:10:13Z</time>
      </trkpt>
      <trkpt lat="34.064590" lon="-118.011280">
        <ele>92.128</ele>
        <time>2018-12-29T12:10:33Z</time>
      </trkpt>
      <trkpt lat="34.064830" lon="-118.012450">
        <ele>92.119</ele>
        <time>2018-12-29T12:10:53Z</time>
      </trkpt>
      <trkpt lat="34.064990" lon="-118.013220">
        <ele>92.152</ele>
        <time>2018-12-29T12:11:13Z</time>
      </trkpt>
      <trkpt lat="34.065200" lon="-118.014220">
        <ele>92.272</ele>
        <time>2018-12-29T12:11:33Z</time>
      </trkpt>
      <trkpt lat="34.065220" lon="-118.014330">
        <ele>92.274</ele>
        <time>2018-12-29T12:11:53Z</time>
      </trkpt>
      <trkpt lat="34.065320" lon="-118.014780">
        <ele>92.156</ele>
        <time>2018-12-29T12:12:13Z</time>
      </trkpt>
      <trkpt lat="34.065400" lon="-118.015120">
        <ele>92.121</ele>
        <time>2018-12-29T12:12:33Z</time>
      </trkpt>
      <trkpt lat="34.065480" lon="-118.015420">
        <ele>92.108</ele>
        <time>2018-12-29T12:12:53Z</time>
      </trkpt>
      <trkpt lat="34.065580" lon="-118.015760">
        <ele>92.110</ele>
        <time>2018-12-29T12:13:13Z</time>
      </trkpt>
      <trkpt lat="34.065620" lon="-118.015910">
        <ele>92.138</ele>
        <time>2018-12-29T12:13:33Z</time>
      </trkpt>
      <trkpt lat="34.065670" lon="-118.016060">
        <ele>92.183</ele>
        <time>2018-12-29T12:13:53Z</time>
      </trkpt>
      <trkpt lat="34.065710" lon="-118.016190">
        <ele>92.124</ele>
        <time>2018-12-29T12:14:13Z</time>
      </trkpt>
      <trkpt lat="34.065760" lon="-118.016330">
        <ele>92.189</ele>
        <time>2018-12-29T12:14:33Z</time>
      </trkpt>
      <trkpt lat="34.065840" lon="-118.016560">
        <ele>92.160</ele>
        <time>2018-12-29T12:14:53Z</time>
      </trkpt>
      <trkpt lat="34.065930" lon="-118.016780">
        <ele>92.163</ele>
        <time>2018-12-29T12:15:13Z</time>
      </trkpt>
      <trkpt lat="34.066050" lon="-118.017100">
        <ele>92.153</ele>
        <time>2018-12-29T12:15:33Z</time>
      </trkpt>
      <trkpt lat="34.066110" lon="-118.017230">
        <ele>92.167</ele>
        <time>2018-12-29T12:15:53Z</time>
      </trkpt>
      <trkpt lat="34.066160" lon="-118.017340">
        <ele>92.181</ele>
        <time>2018-12-29T12:16:13Z</time>
      </trkpt>
      <trkpt lat="34.066210" lon="-118.017470">
        <ele>92.119</ele>
        <time>2018-12-29T12:16:33Z</time>
      </trkpt>
      <trkpt lat="34.066410" lon="-118.017890">
        <ele>92.108</ele>
        <time>2018-12-29T12:16:53Z</time>
      </trkpt>
      <trkpt lat="34.067170" lon="-118.019640">
        <ele>92.229</ele>
        <time>2018-12-29T12:17:13Z</time>
      </trkpt>
      <trkpt lat="34.067390" lon="-118.020160">
        <ele>92.297</ele>
        <time>2018-12-29T12:17:33Z</time>
      </trkpt>
      <trkpt lat="34.067600" lon="-118.020710">
        <ele>92.212</ele>
        <time>2018-12-29T12:17:53Z</time>
      </trkpt>
      <trkpt lat="34.067690" lon="-118.020950">
        <ele>91.833</ele>
        <time>2018-12-29T12:18:13Z</time>
      </trkpt>
      <trkpt lat="34.067750" lon="-118.021150">
        <ele>91.328</ele>
        <time>2018-12-29T12:18:33Z</time>
      </trkpt>
      <trkpt lat="34.067830" lon="-118.021440">
        <ele>90.969</ele>
        <time>2018-12-29T12:18:53Z</time>
      </trkpt>
      <trkpt lat="34.067910" lon="-118.021780">
        <ele>90.792</ele>
        <time>2018-12-29T12:19:13Z</time>
      </trkpt>
      <trkpt lat="34.067970" lon="-118.022010">
        <ele>90.862</ele>
        <time>2018-12-29T12:19:33Z</time>
      </trkpt>
      <trkpt lat="34.068040" lon="-118.022350">
        <ele>91.313</ele>
        <time>2018-12-29T12:19:53Z</time>
      </trkpt>
      <trkpt lat="34.068090" lon="-118.022610">
        <ele>91.743</ele>
        <time>2018-12-29T12:20:13Z</time>
      </trkpt>
      <trkpt lat="34.068160" lon="-118.023050">
        <ele>92.207</ele>
        <time>2018-12-29T12:20:33Z</time>
      </trkpt>
      <trkpt lat="34.068190" lon="-118.023320">
        <ele>92.308</ele>
        <time>2018-12-29T12:20:53Z</time>
      </trkpt>
      <trkpt lat="34.068230" lon="-118.023640">
        <ele>92.324</ele>
        <time>2018-12-29T12:21:13Z</time>
      </trkpt>
      <trkpt lat="34.068250" lon="-118.024000">
        <ele>92.332</ele>
        <time>2018-12-29T12:21:33Z</time>
      </trkpt>
      <trkpt lat="34.068260" lon="-118.024370">
        <ele>92.347</ele>
        <time>2018-12-29T12:21:53Z</time>
      </trkpt>
      <trkpt lat="34.068260" lon="-118.024690">
        <ele>92.378</ele>
        <time>2018-12-29T12:22:13Z</time>
      </trkpt>
      <trkpt lat="34.068250" lon="-118.025160">
        <ele>92.423</ele>
        <time>2018-12-29T12:22:33Z</time>
      </trkpt>
      <trkpt lat="34.068220" lon="-118.026510">
        <ele>92.224</ele>
        <time>2018-12-29T12:22:53Z</time>
      </trkpt>
      <trkpt lat="34.068190" lon="-118.027190">
        <ele>91.957</ele>
        <time>2018-12-29T12:23:13Z</time>
      </trkpt>
      <trkpt lat="34.068160" lon="-118.028670">
        <ele>86.737</ele>
        <time>2018-12-29T12:23:33Z</time>
      </trkpt>
      <trkpt lat="34.068140" lon="-118.029100">
        <ele>86.029</ele>
        <time>2018-12-29T12:23:53Z</time>
      </trkpt>
      <trkpt lat="34.068110" lon="-118.030460">
        <ele>86.000</ele>
        <time>2018-12-29T12:24:13Z</time>
      </trkpt>
      <trkpt lat="34.068100" lon="-118.030660">
        <ele>86.020</ele>
        <time>2018-12-29T12:24:33Z</time>
      </trkpt>
      <trkpt lat="34.068100" lon="-118.030870">
        <ele>86.008</ele>
        <time>2018-12-29T12:24:53Z</time>
      </trkpt>
      <trkpt lat="34.068090" lon="-118.031190">
        <ele>86.065</ele>
        <time>2018-12-29T12:25:13Z</time>
      </trkpt>
      <trkpt lat="34.068080" lon="-118.031850">
        <ele>86.063</ele>
        <time>2018-12-29T12:25:33Z</time>
      </trkpt>
      <trkpt lat="34.068090" lon="-118.032830">
        <ele>86.058</ele>
        <time>2018-12-29T12:25:53Z</time>
      </trkpt>
      <trkpt lat="34.068110" lon="-118.033600">
        <ele>86.049</ele>
        <time>2018-12-29T12:26:13Z</time>
      </trkpt>
      <trkpt lat="34.068130" lon="-118.034380">
        <ele>86.014</ele>
        <time>2018-12-29T12:26:33Z</time>
      </trkpt>
      <trkpt lat="34.068210" lon="-118.035760">
        <ele>86.185</ele>
        <time>2018-12-29T12:26:53Z</time>
      </trkpt>
      <trkpt lat="34.068220" lon="-118.035960">
        <ele>86.018</ele>
        <time>2018-12-29T12:27:13Z</time>
      </trkpt>
      <trkpt lat="34.068220" lon="-118.036160">
        <ele>86.058</ele>
        <time>2018-12-29T12:27:33Z</time>
      </trkpt>
      <trkpt lat="34.068400" lon="-118.038180">
        <ele>86.136</ele>
        <time>2018-12-29T12:27:53Z</time>
      </trkpt>
      <trkpt lat="34.068480" lon="-118.038920">
        <ele>86.117</ele>
        <time>2018-12-29T12:28:13Z</time>
      </trkpt>
      <trkpt lat="34.068540" lon="-118.039400">
        <ele>86.018</ele>
        <time>2018-12-29T12:28:33Z</time>
      </trkpt>
      <trkpt lat="34.068600" lon="-118.039870">
        <ele>86.108</ele>
        <time>2018-12-29T12:28:53Z</time>
      </trkpt>
      <trkpt lat="34.068860" lon="-118.041940">
        <ele>86.076</ele>
        <time>2018-12-29T12:29:13Z</time>
      </trkpt>
      <trkpt lat="34.068890" lon="-118.042150">
        <ele>86.054</ele>
        <time>2018-12-29T12:29:33Z</time>
      </trkpt>
      <trkpt lat="34.068930" lon="-118.042360">
        <ele>86.079</ele>
        <time>2018-12-29T12:29:53Z</time>
      </trkpt>
      <trkpt lat="34.068950" lon="-118.042520">
        <ele>86.150</ele>
        <time>2018-12-29T12:30:13Z</time>
      </trkpt>
      <trkpt lat="34.069050" lon="-118.043250">
        <ele>86.175</ele>
        <time>2018-12-29T12:30:33Z</time>
      </trkpt>
      <trkpt lat="34.069090" lon="-118.043520">
        <ele>86.176</ele>
        <time>2018-12-29T12:30:53Z</time>
      </trkpt>
      <trkpt lat="34.069140" lon="-118.043800">
        <ele>86.149</ele>
        <time>2018-12-29T12:31:13Z</time>
      </trkpt>
      <trkpt lat="34.069210" lon="-118.044180">
        <ele>86.269</ele>
        <time>2018-12-29T12:31:33Z</time>
      </trkpt>
      <trkpt lat="34.069290" lon="-118.044490">
        <ele>86.248</ele>
        <time>2018-12-29T12:31:53Z</time>
      </trkpt>
      <trkpt lat="34.069390" lon="-118.044840">
        <ele>86.261</ele>
        <time>2018-12-29T12:32:13Z</time>
      </trkpt>
      <trkpt lat="34.069500" lon="-118.045210">
        <ele>85.817</ele>
        <time>2018-12-29T12:32:33Z</time>
      </trkpt>
      <trkpt lat="34.069660" lon="-118.045620">
        <ele>84.808</ele>
        <time>2018-12-29T12:32:53Z</time>
      </trkpt>
      <trkpt lat="34.069730" lon="-118.045780">
        <ele>84.317</ele>
        <time>2018-12-29T12:33:13Z</time>
      </trkpt>
      <trkpt lat="34.069800" lon="-118.045950">
        <ele>83.815</ele>
        <time>2018-12-29T12:33:33Z</time>
      </trkpt>
      <trkpt lat="34.070480" lon="-118.047580">
        <ele>81.090</ele>
        <time>2018-12-29T12:33:53Z</time>
      </trkpt>
      <trkpt lat="34.070990" lon="-118.048730">
        <ele>80.361</ele>
        <time>2018-12-29T12:34:13Z</time>
      </trkpt>
      <trkpt lat="34.071100" lon="-118.049000">
        <ele>78.666</ele>
        <time>2018-12-29T12:34:33Z</time>
      </trkpt>
      <trkpt lat="34.071220" lon="-118.049280">
        <ele>76.317</ele>
        <time>2018-12-29T12:34:53Z</time>
      </trkpt>
      <trkpt lat="34.071440" lon="-118.049750">
        <ele>78.870</ele>
        <time>2018-12-29T12:35:13Z</time>
      </trkpt>
      <trkpt lat="34.071790" lon="-118.050480">
        <ele>83.430</ele>
        <time>2018-12-29T12:35:33Z</time>
      </trkpt>
      <trkpt lat="34.071950" lon="-118.050790">
        <ele>85.579</ele>
        <time>2018-12-29T12:35:53Z</time>
      </trkpt>
      <trkpt lat="34.072050" lon="-118.051000">
        <ele>86.105</ele>
        <time>2018-12-29T12:36:13Z</time>
      </trkpt>
      <trkpt lat="34.072150" lon="-118.051240">
        <ele>86.125</ele>
        <time>2018-12-29T12:36:33Z</time>
      </trkpt>
      <trkpt lat="34.072300" lon="-118.051640">
        <ele>86.108</ele>
        <time>2018-12-29T12:36:53Z</time>
      </trkpt>
      <trkpt lat="34.072400" lon="-118.051910">
        <ele>86.140</ele>
        <time>2018-12-29T12:37:13Z</time>
      </trkpt>
      <trkpt lat="34.072470" lon="-118.052170">
        <ele>85.988</ele>
        <time>2018-12-29T12:37:33Z</time>
      </trkpt>
      <trkpt lat="34.072530" lon="-118.052370">
        <ele>85.833</ele>
        <time>2018-12-29T12:37:53Z</time>
      </trkpt>
      <trkpt lat="34.072590" lon="-118.052630">
        <ele>86.084</ele>
        <time>2018-12-29T12:38:13Z</time>
      </trkpt>
      <trkpt lat="34.072630" lon="-118.052870">
        <ele>86.119</ele>
        <time>2018-12-29T12:38:33Z</time>
      </trkpt>
      <trkpt lat="34.072670" lon="-118.053110">
        <ele>86.050</ele>
        <time>2018-12-29T12:38:53Z</time>
      </trkpt>
      <trkpt lat="34.072690" lon="-118.053250">
        <ele>85.243</ele>
        <time>2018-12-29T12:39:13Z</time>
      </trkpt>
      <trkpt lat="34.072700" lon="-118.053330">
        <ele>84.323</ele>
        <time>2018-12-29T12:39:33Z</time>
      </trkpt>
      <trkpt lat="34.072720" lon="-118.053480">
        <ele>82.675</ele>
        <time>2018-12-29T12:39:53Z</time>
      </trkpt>
      <trkpt lat="34.072730" lon="-118.053770">
        <ele>86.228</ele>
        <time>2018-12-29T12:40:13Z</time>
      </trkpt>
      <trkpt lat="34.072750" lon="-118.054030">
        <ele>85.620</ele>
        <time>2018-12-29T12:40:33Z</time>
      </trkpt>
      <trkpt lat="34.072750" lon="-118.054230">
        <ele>85.608</ele>
        <time>2018-12-29T12:40:53Z</time>
      </trkpt>
      <trkpt lat="34.072750" lon="-118.054480">
        <ele>85.680</ele>
        <time>2018-12-29T12:41:13Z</time>
      </trkpt>
      <trkpt lat="34.072740" lon="-118.054730">
        <ele>84.788</ele>
        <time>2018-12-29T12:41:33Z</time>
      </trkpt>
      <trkpt lat="34.072700" lon="-118.055550">
        <ele>78.663</ele>
        <time>2018-12-29T12:41:53Z</time>
      </trkpt>
      <trkpt lat="34.072650" lon="-118.056520">
        <ele>80.364</ele>
        <time>2018-12-29T12:42:13Z</time>
      </trkpt>
      <trkpt lat="34.072560" lon="-118.060020">
        <ele>80.369</ele>
        <time>2018-12-29T12:42:33Z</time>
      </trkpt>
      <trkpt lat="34.072540" lon="-118.061210">
        <ele>80.360</ele>
        <time>2018-12-29T12:42:53Z</time>
      </trkpt>
      <trkpt lat="34.072530" lon="-118.061870">
        <ele>80.433</ele>
        <time>2018-12-29T12:43:13Z</time>
      </trkpt>
      <trkpt lat="34.072510" lon="-118.062580">
        <ele>80.443</ele>
        <time>2018-12-29T12:43:33Z</time>
      </trkpt>
      <trkpt lat="34.072480" lon="-118.064430">
        <ele>80.611</ele>
        <time>2018-12-29T12:43:53Z</time>
      </trkpt>
      <trkpt lat="34.072420" lon="-118.068670">
        <ele>81.921</ele>
        <time>2018-12-29T12:44:13Z</time>
      </trkpt>
      <trkpt lat="34.072430" lon="-118.068950">
        <ele>82.103</ele>
        <time>2018-12-29T12:44:33Z</time>
      </trkpt>
      <trkpt lat="34.072420" lon="-118.069330">
        <ele>82.408</ele>
        <time>2018-12-29T12:44:53Z</time>
      </trkpt>
      <trkpt lat="34.072380" lon="-118.072700">
        <ele>85.894</ele>
        <time>2018-12-29T12:45:13Z</time>
      </trkpt>
      <trkpt lat="34.072370" lon="-118.072930">
        <ele>86.122</ele>
        <time>2018-12-29T12:45:33Z</time>
      </trkpt>
      <trkpt lat="34.072370" lon="-118.073070">
        <ele>86.177</ele>
        <time>2018-12-29T12:45:53Z</time>
      </trkpt>
      <trkpt lat="34.072370" lon="-118.073080">
        <ele>86.128</ele>
        <time>2018-12-29T12:46:13Z</time>
      </trkpt>
      <trkpt lat="34.072370" lon="-118.073290">
        <ele>85.873</ele>
        <time>2018-12-29T12:46:33Z</time>
      </trkpt>
      <trkpt lat="34.072360" lon="-118.075580">
        <ele>81.494</ele>
        <time>2018-12-29T12:46:53Z</time>
      </trkpt>
      <trkpt lat="34.072330" lon="-118.076300">
        <ele>83.097</ele>
        <time>2018-12-29T12:47:13Z</time>
      </trkpt>
      <trkpt lat="34.072320" lon="-118.077690">
        <ele>86.227</ele>
        <time>2018-12-29T12:47:33Z</time>
      </trkpt>
      <trkpt lat="34.072290" lon="-118.079630">
        <ele>87.065</ele>
        <time>2018-12-29T12:47:53Z</time>
      </trkpt>
      <trkpt lat="34.072280" lon="-118.080640">
        <ele>87.368</ele>
        <time>2018-12-29T12:48:13Z</time>
      </trkpt>
      <trkpt lat="34.072270" lon="-118.081510">
        <ele>86.214</ele>
        <time>2018-12-29T12:48:33Z</time>
      </trkpt>
      <trkpt lat="34.072260" lon="-118.081820">
        <ele>86.008</ele>
        <time>2018-12-29T12:48:53Z</time>
      </trkpt>
      <trkpt lat="34.072260" lon="-118.081940">
        <ele>86.099</ele>
        <time>2018-12-29T12:49:13Z</time>
      </trkpt>
      <trkpt lat="34.072250" lon="-118.083090">
        <ele>87.677</ele>
        <time>2018-12-29T12:49:33Z</time>
      </trkpt>
      <trkpt lat="34.072240" lon="-118.083840">
        <ele>88.722</ele>
        <time>2018-12-29T12:49:53Z</time>
      </trkpt>
      <trkpt lat="34.072240" lon="-118.083880">
        <ele>88.783</ele>
        <time>2018-12-29T12:50:13Z</time>
      </trkpt>
      <trkpt lat="34.072220" lon="-118.085160">
        <ele>90.148</ele>
        <time>2018-12-29T12:50:33Z</time>
      </trkpt>
      <trkpt lat="34.072200" lon="-118.086850">
        <ele>91.079</ele>
        <time>2018-12-29T12:50:53Z</time>
      </trkpt>
      <trkpt lat="34.072220" lon="-118.088040">
        <ele>91.752</ele>
        <time>2018-12-29T12:51:13Z</time>
      </trkpt>
      <trkpt lat="34.072210" lon="-118.088530">
        <ele>92.152</ele>
        <time>2018-12-29T12:51:33Z</time>
      </trkpt>
      <trkpt lat="34.072160" lon="-118.090390">
        <ele>92.222</ele>
        <time>2018-12-29T12:51:53Z</time>
      </trkpt>
      <trkpt lat="34.072160" lon="-118.090590">
        <ele>92.162</ele>
        <time>2018-12-29T12:52:13Z</time>
      </trkpt>
      <trkpt lat="34.072160" lon="-118.090600">
        <ele>92.108</ele>
        <time>2018-12-29T12:52:33Z</time>
      </trkpt>
      <trkpt lat="34.072160" lon="-118.090660">
        <ele>92.108</ele>
        <time>2018-12-29T12:52:53Z</time>
      </trkpt>
      <trkpt lat="34.072160" lon="-118.090700">
        <ele>92.125</ele>
        <time>2018-12-29T12:53:13Z</time>
      </trkpt>
      <trkpt lat="34.072160" lon="-118.090710">
        <ele>92.153</ele>
        <time>2018-12-29T12:53:33Z</time>
      </trkpt>
      <trkpt lat="34.072150" lon="-118.090930">
        <ele>92.258</ele>
        <time>2018-12-29T12:53:53Z</time>
      </trkpt>
      <trkpt lat="34.072160" lon="-118.092540">
        <ele>93.179</ele>
        <time>2018-12-29T12:54:13Z</time>
      </trkpt>
      <trkpt lat="34.072120" lon="-118.093520">
        <ele>93.274</ele>
        <time>2018-12-29T12:54:33Z</time>
      </trkpt>
      <trkpt lat="34.072110" lon="-118.094480">
        <ele>93.165</ele>
        <time>2018-12-29T12:54:53Z</time>
      </trkpt>
      <trkpt lat="34.072080" lon="-118.096810">
        <ele>88.568</ele>
        <time>2018-12-29T12:55:13Z</time>
      </trkpt>
      <trkpt lat="34.072080" lon="-118.097250">
        <ele>93.468</ele>
        <time>2018-12-29T12:55:33Z</time>
      </trkpt>
      <trkpt lat="34.072070" lon="-118.098430">
        <ele>98.552</ele>
        <time>2018-12-29T12:55:53Z</time>
      </trkpt>
      <trkpt lat="34.072080" lon="-118.099140">
        <ele>99.053</ele>
        <time>2018-12-29T12:56:13Z</time>
      </trkpt>
      <trkpt lat="34.072090" lon="-118.099470">
        <ele>91.508</ele>
        <time>2018-12-29T12:56:33Z</time>
      </trkpt>
      <trkpt lat="34.072090" lon="-118.099590">
        <ele>88.108</ele>
        <time>2018-12-29T12:56:53Z</time>
      </trkpt>
      <trkpt lat="34.072100" lon="-118.099930">
        <ele>97.898</ele>
        <time>2018-12-29T12:57:13Z</time>
      </trkpt>
      <trkpt lat="34.072140" lon="-118.101120">
        <ele>99.476</ele>
        <time>2018-12-29T12:57:33Z</time>
      </trkpt>
      <trkpt lat="34.072160" lon="-118.101790">
        <ele>99.671</ele>
        <time>2018-12-29T12:57:53Z</time>
      </trkpt>
      <trkpt lat="34.072160" lon="-118.102310">
        <ele>100.182</ele>
        <time>2018-12-29T12:58:13Z</time>
      </trkpt>
      <trkpt lat="34.072160" lon="-118.103540">
        <ele>102.657</ele>
        <time>2018-12-29T12:58:33Z</time>
      </trkpt>
      <trkpt lat="34.072170" lon="-118.103820">
        <ele>103.148</ele>
        <time>2018-12-29T12:58:53Z</time>
      </trkpt>
      <trkpt lat="34.072180" lon="-118.104190">
        <ele>103.641</ele>
        <time>2018-12-29T12:59:13Z</time>
      </trkpt>
      <trkpt lat="34.072190" lon="-118.104520">
        <ele>104.091</ele>
        <time>2018-12-29T12:59:33Z</time>
      </trkpt>
      <trkpt lat="34.072190" lon="-118.104840">
        <ele>104.447</ele>
        <time>2018-12-29T12:59:53Z</time>
      </trkpt>
      <trkpt lat="34.072170" lon="-118.105460">
        <ele>104.629</ele>
        <time>2018-12-29T13:00:13Z</time>
      </trkpt>
      <trkpt lat="34.072160" lon="-118.105710">
        <ele>104.821</ele>
        <time>2018-12-29T13:00:33Z</time>
      </trkpt>
      <trkpt lat="34.072120" lon="-118.106140">
        <ele>105.708</ele>
        <time>2018-12-29T13:00:53Z</time>
      </trkpt>
      <trkpt lat="34.072080" lon="-118.106780">
        <ele>107.357</ele>
        <time>2018-12-29T13:01:13Z</time>
      </trkpt>
      <trkpt lat="34.072040" lon="-118.107310">
        <ele>108.845</ele>
        <time>2018-12-29T13:01:33Z</time>
      </trkpt>
      <trkpt lat="34.072020" lon="-118.107650">
        <ele>109.510</ele>
        <time>2018-12-29T13:01:53Z</time>
      </trkpt>
      <trkpt lat="34.072000" lon="-118.108120">
        <ele>110.421</ele>
        <time>2018-12-29T13:02:13Z</time>
      </trkpt>
      <trkpt lat="34.071990" lon="-118.108390">
        <ele>110.476</ele>
        <time>2018-12-29T13:02:33Z</time>
      </trkpt>
      <trkpt lat="34.071980" lon="-118.108740">
        <ele>110.287</ele>
        <time>2018-12-29T13:02:53Z</time>
      </trkpt>
      <trkpt lat="34.071950" lon="-118.109720">
        <ele>111.240</ele>
        <time>2018-12-29T13:03:13Z</time>
      </trkpt>
      <trkpt lat="34.071920" lon="-118.110550">
        <ele>113.030</ele>
        <time>2018-12-29T13:03:33Z</time>
      </trkpt>
      <trkpt lat="34.071890" lon="-118.112430">
        <ele>116.837</ele>
        <time>2018-12-29T13:03:53Z</time>
      </trkpt>
      <trkpt lat="34.071880" lon="-118.113590">
        <ele>117.949</ele>
        <time>2018-12-29T13:04:13Z</time>
      </trkpt>
      <trkpt lat="34.071860" lon="-118.115650">
        <ele>120.413</ele>
        <time>2018-12-29T13:04:33Z</time>
      </trkpt>
      <trkpt lat="34.071850" lon="-118.116440">
        <ele>121.508</ele>
        <time>2018-12-29T13:04:53Z</time>
      </trkpt>
      <trkpt lat="34.071850" lon="-118.117880">
        <ele>122.246</ele>
        <time>2018-12-29T13:05:13Z</time>
      </trkpt>
      <trkpt lat="34.071850" lon="-118.118670">
        <ele>122.894</ele>
        <time>2018-12-29T13:05:33Z</time>
      </trkpt>
      <trkpt lat="34.071850" lon="-118.118800">
        <ele>122.829</ele>
        <time>2018-12-29T13:05:53Z</time>
      </trkpt>
      <trkpt lat="34.071840" lon="-118.119580">
        <ele>123.030</ele>
        <time>2018-12-29T13:06:13Z</time>
      </trkpt>
      <trkpt lat="34.071830" lon="-118.120980">
        <ele>123.395</ele>
        <time>2018-12-29T13:06:33Z</time>
      </trkpt>
      <trkpt lat="34.071810" lon="-118.122720">
        <ele>122.766</ele>
        <time>2018-12-29T13:06:53Z</time>
      </trkpt>
      <trkpt lat="34.071790" lon="-118.122930">
        <ele>122.779</ele>
        <time>2018-12-29T13:07:13Z</time>
      </trkpt>
      <trkpt lat="34.071770" lon="-118.123140">
        <ele>122.859</ele>
        <time>2018-12-29T13:07:33Z</time>
      </trkpt>
      <trkpt lat="34.071750" lon="-118.124460">
        <ele>123.378</ele>
        <time>2018-12-29T13:07:53Z</time>
      </trkpt>
      <trkpt lat="34.071750" lon="-118.124840">
        <ele>123.333</ele>
        <time>2018-12-29T13:08:13Z</time>
      </trkpt>
      <trkpt lat="34.071700" lon="-118.128600">
        <ele>123.226</ele>
        <time>2018-12-29T13:08:33Z</time>
      </trkpt>
      <trkpt lat="34.071700" lon="-118.128810">
        <ele>123.008</ele>
        <time>2018-12-29T13:08:53Z</time>
      </trkpt>
      <trkpt lat="34.071700" lon="-118.129010">
        <ele>123.540</ele>
        <time>2018-12-29T13:09:13Z</time>
      </trkpt>
      <trkpt lat="34.071680" lon="-118.131340">
        <ele>128.028</ele>
        <time>2018-12-29T13:09:33Z</time>
      </trkpt>
      <trkpt lat="34.071660" lon="-118.132840">
        <ele>128.393</ele>
        <time>2018-12-29T13:09:53Z</time>
      </trkpt>
      <trkpt lat="34.071640" lon="-118.134150">
        <ele>126.194</ele>
        <time>2018-12-29T13:10:13Z</time>
      </trkpt>
      <trkpt lat="34.071630" lon="-118.134380">
        <ele>125.679</ele>
        <time>2018-12-29T13:10:33Z</time>
      </trkpt>
      <trkpt lat="34.071630" lon="-118.134620">
        <ele>126.090</ele>
        <time>2018-12-29T13:10:53Z</time>
      </trkpt>
      <trkpt lat="34.071620" lon="-118.135760">
        <ele>128.423</ele>
        <time>2018-12-29T13:11:13Z</time>
      </trkpt>
      <trkpt lat="34.071620" lon="-118.136350">
        <ele>128.743</ele>
        <time>2018-12-29T13:11:33Z</time>
      </trkpt>
      <trkpt lat="34.071600" lon="-118.136920">
        <ele>128.742</ele>
        <time>2018-12-29T13:11:53Z</time>
      </trkpt>
      <trkpt lat="34.071590" lon="-118.138000">
        <ele>129.522</ele>
        <time>2018-12-29T13:12:13Z</time>
      </trkpt>
      <trkpt lat="34.071580" lon="-118.139140">
        <ele>131.214</ele>
        <time>2018-12-29T13:12:33Z</time>
      </trkpt>
      <trkpt lat="34.071550" lon="-118.140770">
        <ele>131.408</ele>
        <time>2018-12-29T13:12:53Z</time>
      </trkpt>
      <trkpt lat="34.071550" lon="-118.141380">
        <ele>131.677</ele>
        <time>2018-12-29T13:13:13Z</time>
      </trkpt>
      <trkpt lat="34.071570" lon="-118.141820">
        <ele>131.915</ele>
        <time>2018-12-29T13:13:33Z</time>
      </trkpt>
      <trkpt lat="34.071590" lon="-118.142030">
        <ele>132.040</ele>
        <time>2018-12-29T13:13:53Z</time>
      </trkpt>
      <trkpt lat="34.071620" lon="-118.142310">
        <ele>132.271</ele>
        <time>2018-12-29T13:14:13Z</time>
      </trkpt>
      <trkpt lat="34.071670" lon="-118.142630">
        <ele>132.326</ele>
        <time>2018-12-29T13:14:33Z</time>
      </trkpt>
      <trkpt lat="34.071750" lon="-118.143250">
        <ele>132.627</ele>
        <time>2018-12-29T13:14:53Z</time>
      </trkpt>
      <trkpt lat="34.071790" lon="-118.143510">
        <ele>132.670</ele>
        <time>2018-12-29T13:15:13Z</time>
      </trkpt>
      <trkpt lat="34.071810" lon="-118.143620">
        <ele>132.630</ele>
        <time>2018-12-29T13:15:33Z</time>
      </trkpt>
      <trkpt lat="34.071820" lon="-118.143740">
        <ele>132.711</ele>
        <time>2018-12-29T13:15:53Z</time>
      </trkpt>
      <trkpt lat="34.071830" lon="-118.143890">
        <ele>132.721</ele>
        <time>2018-12-29T13:16:13Z</time>
      </trkpt>
      <trkpt lat="34.071830" lon="-118.144020">
        <ele>132.703</ele>
        <time>2018-12-29T13:16:33Z</time>
      </trkpt>
      <trkpt lat="34.071830" lon="-118.144160">
        <ele>132.808</ele>
        <time>2018-12-29T13:16:53Z</time>
      </trkpt>
      <trkpt lat="34.071830" lon="-118.144260">
        <ele>132.884</ele>
        <time>2018-12-29T13:17:13Z</time>
      </trkpt>
      <trkpt lat="34.071810" lon="-118.144420">
        <ele>132.842</ele>
        <time>2018-12-29T13:17:33Z</time>
      </trkpt>
      <trkpt lat="34.071790" lon="-118.144590">
        <ele>132.927</ele>
        <time>2018-12-29T13:17:53Z</time>
      </trkpt>
      <trkpt lat="34.071770" lon="-118.144720">
        <ele>132.928</ele>
        <time>2018-12-29T13:18:13Z</time>
      </trkpt>
      <trkpt lat="34.071750" lon="-118.144840">
        <ele>133.073</ele>
        <time>2018-12-29T13:18:33Z</time>
      </trkpt>
      <trkpt lat="34.071680" lon="-118.145100">
        <ele>133.064</ele>
        <time>2018-12-29T13:18:53Z</time>
      </trkpt>
      <trkpt lat="34.071620" lon="-118.145290">
        <ele>133.027</ele>
        <time>2018-12-29T13:19:13Z</time>
      </trkpt>
      <trkpt lat="34.071580" lon="-118.145400">
        <ele>133.067</ele>
        <time>2018-12-29T13:19:33Z</time>
      </trkpt>
      <trkpt lat="34.071530" lon="-118.145540">
        <ele>133.041</ele>
        <time>2018-12-29T13:19:53Z</time>
      </trkpt>
      <trkpt lat="34.071430" lon="-118.145750">
        <ele>133.081</ele>
        <time>2018-12-29T13:20:13Z</time>
      </trkpt>
      <trkpt lat="34.071220" lon="-118.146150">
        <ele>132.809</ele>
        <time>2018-12-29T13:20:33Z</time>
      </trkpt>
      <trkpt lat="34.070870" lon="-118.146800">
        <ele>132.608</ele>
        <time>2018-12-29T13:20:53Z</time>
      </trkpt>
      <trkpt lat="34.070530" lon="-118.147450">
        <ele>132.677</ele>
        <time>2018-12-29T13:21:13Z</time>
      </trkpt>
      <trkpt lat="34.070240" lon="-118.148000">
        <ele>133.045</ele>
        <time>2018-12-29T13:21:33Z</time>
      </trkpt>
      <trkpt lat="34.069950" lon="-118.148540">
        <ele>133.550</ele>
        <time>2018-12-29T13:21:53Z</time>
      </trkpt>
      <trkpt lat="34.069550" lon="-118.149290">
        <ele>132.491</ele>
        <time>2018-12-29T13:22:13Z</time>
      </trkpt>
      <trkpt lat="34.069280" lon="-118.149820">
        <ele>130.826</ele>
        <time>2018-12-29T13:22:33Z</time>
      </trkpt>
      <trkpt lat="34.068970" lon="-118.150400">
        <ele>129.897</ele>
        <time>2018-12-29T13:22:53Z</time>
      </trkpt>
      <trkpt lat="34.068890" lon="-118.150550">
        <ele>129.610</ele>
        <time>2018-12-29T13:23:13Z</time>
      </trkpt>
      <trkpt lat="34.068770" lon="-118.150770">
        <ele>129.290</ele>
        <time>2018-12-29T13:23:33Z</time>
      </trkpt>
      <trkpt lat="34.068320" lon="-118.151630">
        <ele>128.347</ele>
        <time>2018-12-29T13:23:53Z</time>
      </trkpt>
      <trkpt lat="34.068220" lon="-118.151810">
        <ele>128.229</ele>
        <time>2018-12-29T13:24:13Z</time>
      </trkpt>
      <trkpt lat="34.067380" lon="-118.153410">
        <ele>127.021</ele>
        <time>2018-12-29T13:24:33Z</time>
      </trkpt>
      <trkpt lat="34.066910" lon="-118.154290">
        <ele>126.208</ele>
        <time>2018-12-29T13:24:53Z</time>
      </trkpt>
      <trkpt lat="34.066270" lon="-118.155500">
        <ele>126.297</ele>
        <time>2018-12-29T13:25:13Z</time>
      </trkpt>
      <trkpt lat="34.066150" lon="-118.155730">
        <ele>126.015</ele>
        <time>2018-12-29T13:25:33Z</time>
      </trkpt>
      <trkpt lat="34.065060" lon="-118.157840">
        <ele>121.480</ele>
        <time>2018-12-29T13:25:53Z</time>
      </trkpt>
      <trkpt lat="34.064960" lon="-118.158020">
        <ele>121.161</ele>
        <time>2018-12-29T13:26:13Z</time>
      </trkpt>
      <trkpt lat="34.064820" lon="-118.158300">
        <ele>120.766</ele>
        <time>2018-12-29T13:26:33Z</time>
      </trkpt>
      <trkpt lat="34.064530" lon="-118.158840">
        <ele>120.167</ele>
        <time>2018-12-29T13:26:53Z</time>
      </trkpt>
      <trkpt lat="34.064380" lon="-118.159130">
        <ele>119.410</ele>
        <time>2018-12-29T13:27:13Z</time>
      </trkpt>
      <trkpt lat="34.064330" lon="-118.159240">
        <ele>119.150</ele>
        <time>2018-12-29T13:27:33Z</time>
      </trkpt>
      <trkpt lat="34.064290" lon="-118.159320">
        <ele>118.999</ele>
        <time>2018-12-29T13:27:53Z</time>
      </trkpt>
      <trkpt lat="34.064260" lon="-118.159380">
        <ele>118.807</ele>
        <time>2018-12-29T13:28:13Z</time>
      </trkpt>
      <trkpt lat="34.064170" lon="-118.159600">
        <ele>118.427</ele>
        <time>2018-12-29T13:28:33Z</time>
      </trkpt>
      <trkpt lat="34.064100" lon="-118.159780">
        <ele>118.208</ele>
        <time>2018-12-29T13:28:53Z</time>
      </trkpt>
      <trkpt lat="34.063920" lon="-118.160240">
        <ele>118.392</ele>
        <time>2018-12-29T13:29:13Z</time>
      </trkpt>
      <trkpt lat="34.063820" lon="-118.160510">
        <ele>119.330</ele>
        <time>2018-12-29T13:29:33Z</time>
      </trkpt>
      <trkpt lat="34.063730" lon="-118.160730">
        <ele>120.195</ele>
        <time>2018-12-29T13:29:53Z</time>
      </trkpt>
      <trkpt lat="34.063680" lon="-118.160850">
        <ele>120.366</ele>
        <time>2018-12-29T13:30:13Z</time>
      </trkpt>
      <trkpt lat="34.063610" lon="-118.160990">
        <ele>120.591</ele>
        <time>2018-12-29T13:30:33Z</time>
      </trkpt>
      <trkpt lat="34.063580" lon="-118.161050">
        <ele>120.422</ele>
        <time>2018-12-29T13:30:53Z</time>
      </trkpt>
      <trkpt lat="34.063540" lon="-118.161130">
        <ele>120.475</ele>
        <time>2018-12-29T13:31:13Z</time>
      </trkpt>
      <trkpt lat="34.063430" lon="-118.161310">
        <ele>120.265</ele>
        <time>2018-12-29T13:31:33Z</time>
      </trkpt>
      <trkpt lat="34.063320" lon="-118.161470">
        <ele>119.217</ele>
        <time>2018-12-29T13:31:53Z</time>
      </trkpt>
      <trkpt lat="34.063220" lon="-118.161610">
        <ele>117.587</ele>
        <time>2018-12-29T13:32:13Z</time>
      </trkpt>
      <trkpt lat="34.063120" lon="-118.161730">
        <ele>116.515</ele>
        <time>2018-12-29T13:32:33Z</time>
      </trkpt>
      <trkpt lat="34.062980" lon="-118.161910">
        <ele>115.808</ele>
        <time>2018-12-29T13:32:53Z</time>
      </trkpt>
      <trkpt lat="34.062640" lon="-118.162260">
        <ele>111.024</ele>
        <time>2018-12-29T13:33:13Z</time>
      </trkpt>
      <trkpt lat="34.062400" lon="-118.162520">
        <ele>110.222</ele>
        <time>2018-12-29T13:33:33Z</time>
      </trkpt>
      <trkpt lat="34.062270" lon="-118.162670">
        <ele>110.257</ele>
        <time>2018-12-29T13:33:53Z</time>
      </trkpt>
      <trkpt lat="34.062180" lon="-118.162770">
        <ele>110.258</ele>
        <time>2018-12-29T13:34:13Z</time>
      </trkpt>
      <trkpt lat="34.062110" lon="-118.162870">
        <ele>110.273</ele>
        <time>2018-12-29T13:34:33Z</time>
      </trkpt>
      <trkpt lat="34.062000" lon="-118.163030">
        <ele>110.064</ele>
        <time>2018-12-29T13:34:53Z</time>
      </trkpt>
      <trkpt lat="34.061930" lon="-118.163150">
        <ele>109.847</ele>
        <time>2018-12-29T13:35:13Z</time>
      </trkpt>
      <trkpt lat="34.061880" lon="-118.163220">
        <ele>109.727</ele>
        <time>2018-12-29T13:35:33Z</time>
      </trkpt>
      <trkpt lat="34.061780" lon="-118.163400">
        <ele>109.691</ele>
        <time>2018-12-29T13:35:53Z</time>
      </trkpt>
      <trkpt lat="34.061720" lon="-118.163520">
        <ele>109.681</ele>
        <time>2018-12-29T13:36:13Z</time>
      </trkpt>
      <trkpt lat="34.061660" lon="-118.163670">
        <ele>109.519</ele>
        <time>2018-12-29T13:36:33Z</time>
      </trkpt>
      <trkpt lat="34.061610" lon="-118.163780">
        <ele>109.508</ele>
        <time>2018-12-29T13:36:53Z</time>
      </trkpt>
      <trkpt lat="34.061540" lon="-118.163980">
        <ele>109.562</ele>
        <time>2018-12-29T13:37:13Z</time>
      </trkpt>
      <trkpt lat="34.061460" lon="-118.164200">
        <ele>109.590</ele>
        <time>2018-12-29T13:37:33Z</time>
      </trkpt>
      <trkpt lat="34.061410" lon="-118.164420">
        <ele>109.585</ele>
        <time>2018-12-29T13:37:53Z</time>
      </trkpt>
      <trkpt lat="34.061370" lon="-118.164650">
        <ele>109.596</ele>
        <time>2018-12-29T13:38:13Z</time>
      </trkpt>
      <trkpt lat="34.061330" lon="-118.164860">
        <ele>109.591</ele>
        <time>2018-12-29T13:38:33Z</time>
      </trkpt>
      <trkpt lat="34.061310" lon="-118.165060">
        <ele>109.572</ele>
        <time>2018-12-29T13:38:53Z</time>
      </trkpt>
      <trkpt lat="34.061290" lon="-118.165190">
        <ele>109.545</ele>
        <time>2018-12-29T13:39:13Z</time>
      </trkpt>
      <trkpt lat="34.061290" lon="-118.165360">
        <ele>109.695</ele>
        <time>2018-12-29T13:39:33Z</time>
      </trkpt>
      <trkpt lat="34.061280" lon="-118.165530">
        <ele>109.644</ele>
        <time>2018-12-29T13:39:53Z</time>
      </trkpt>
      <trkpt lat="34.061280" lon="-118.165670">
        <ele>109.605</ele>
        <time>2018-12-29T13:40:13Z</time>
      </trkpt>
      <trkpt lat="34.061290" lon="-118.165920">
        <ele>109.615</ele>
        <time>2018-12-29T13:40:33Z</time>
      </trkpt>
      <trkpt lat="34.061310" lon="-118.166170">
        <ele>110.208</ele>
        <time>2018-12-29T13:40:53Z</time>
      </trkpt>
      <trkpt lat="34.061330" lon="-118.166390">
        <ele>110.877</ele>
        <time>2018-12-29T13:41:13Z</time>
      </trkpt>
      <trkpt lat="34.061380" lon="-118.166740">
        <ele>111.995</ele>
        <time>2018-12-29T13:41:33Z</time>
      </trkpt>
      <trkpt lat="34.061410" lon="-118.166950">
        <ele>112.470</ele>
        <time>2018-12-29T13:41:53Z</time>
      </trkpt>
      <trkpt lat="34.061510" lon="-118.167750">
        <ele>114.041</ele>
        <time>2018-12-29T13:42:13Z</time>
      </trkpt>
      <trkpt lat="34.061580" lon="-118.168230">
        <ele>114.196</ele>
        <time>2018-12-29T13:42:33Z</time>
      </trkpt>
      <trkpt lat="34.061650" lon="-118.168800">
        <ele>116.887</ele>
        <time>2018-12-29T13:42:53Z</time>
      </trkpt>
      <trkpt lat="34.061680" lon="-118.169180">
        <ele>118.790</ele>
        <time>2018-12-29T13:43:13Z</time>
      </trkpt>
      <trkpt lat="34.061690" lon="-118.169490">
        <ele>119.920</ele>
        <time>2018-12-29T13:43:33Z</time>
      </trkpt>
      <trkpt lat="34.061680" lon="-118.169830">
        <ele>120.892</ele>
        <time>2018-12-29T13:43:53Z</time>
      </trkpt>
      <trkpt lat="34.061660" lon="-118.170140">
        <ele>122.473</ele>
        <time>2018-12-29T13:44:13Z</time>
      </trkpt>
      <trkpt lat="34.061630" lon="-118.170460">
        <ele>124.820</ele>
        <time>2018-12-29T13:44:33Z</time>
      </trkpt>
      <trkpt lat="34.061560" lon="-118.170950">
        <ele>127.308</ele>
        <time>2018-12-29T13:44:53Z</time>
      </trkpt>
      <trkpt lat="34.061510" lon="-118.171160">
        <ele>127.232</ele>
        <time>2018-12-29T13:45:13Z</time>
      </trkpt>
      <trkpt lat="34.061510" lon="-118.171170">
        <ele>127.240</ele>
        <time>2018-12-29T13:45:33Z</time>
      </trkpt>
      <trkpt lat="34.061450" lon="-118.171390">
        <ele>128.915</ele>
        <time>2018-12-29T13:45:53Z</time>
      </trkpt>
      <trkpt lat="34.061400" lon="-118.171540">
        <ele>130.186</ele>
        <time>2018-12-29T13:46:13Z</time>
      </trkpt>
      <trkpt lat="34.061320" lon="-118.171790">
        <ele>130.481</ele>
        <time>2018-12-29T13:46:33Z</time>
      </trkpt>
      <trkpt lat="34.061260" lon="-118.171990">
        <ele>129.922</ele>
        <time>2018-12-29T13:46:53Z</time>
      </trkpt>
      <trkpt lat="34.061200" lon="-118.172130">
        <ele>130.095</ele>
        <time>2018-12-29T13:47:13Z</time>
      </trkpt>
      <trkpt lat="34.061150" lon="-118.172260">
        <ele>129.915</ele>
        <time>2018-12-29T13:47:33Z</time>
      </trkpt>
      <trkpt lat="34.061090" lon="-118.172400">
        <ele>129.711</ele>
        <time>2018-12-29T13:47:53Z</time>
      </trkpt>
      <trkpt lat="34.060780" lon="-118.173110">
        <ele>133.621</ele>
        <time>2018-12-29T13:48:13Z</time>
      </trkpt>
      <trkpt lat="34.060600" lon="-118.173520">
        <ele>133.903</ele>
        <time>2018-12-29T13:48:33Z</time>
      </trkpt>
      <trkpt lat="34.060460" lon="-118.173840">
        <ele>133.908</ele>
        <time>2018-12-29T13:48:53Z</time>
      </trkpt>
      <trkpt lat="34.060150" lon="-118.174580">
        <ele>130.194</ele>
        <time>2018-12-29T13:49:13Z</time>
      </trkpt>
      <trkpt lat="34.059750" lon="-118.175490">
        <ele>128.832</ele>
        <time>2018-12-29T13:49:33Z</time>
      </trkpt>
      <trkpt lat="34.058660" lon="-118.178060">
        <ele>124.637</ele>
        <time>2018-12-29T13:49:53Z</time>
      </trkpt>
      <trkpt lat="34.058530" lon="-118.178330">
        <ele>124.228</ele>
        <time>2018-12-29T13:50:13Z</time>
      </trkpt>
      <trkpt lat="34.057990" lon="-118.179580">
        <ele>123.573</ele>
        <time>2018-12-29T13:50:33Z</time>
      </trkpt>
      <trkpt lat="34.057420" lon="-118.180830">
        <ele>123.784</ele>
        <time>2018-12-29T13:50:53Z</time>
      </trkpt>
      <trkpt lat="34.056900" lon="-118.181920">
        <ele>125.447</ele>
        <time>2018-12-29T13:51:13Z</time>
      </trkpt>
      <trkpt lat="34.056700" lon="-118.182330">
        <ele>126.547</ele>
        <time>2018-12-29T13:51:33Z</time>
      </trkpt>
      <trkpt lat="34.056310" lon="-118.183160">
        <ele>127.697</ele>
        <time>2018-12-29T13:51:53Z</time>
      </trkpt>
      <trkpt lat="34.056210" lon="-118.183390">
        <ele>127.123</ele>
        <time>2018-12-29T13:52:13Z</time>
      </trkpt>
      <trkpt lat="34.056130" lon="-118.183580">
        <ele>126.625</ele>
        <time>2018-12-29T13:52:33Z</time>
      </trkpt>
      <trkpt lat="34.056020" lon="-118.183860">
        <ele>126.108</ele>
        <time>2018-12-29T13:52:53Z</time>
      </trkpt>
      <trkpt lat="34.055930" lon="-118.184130">
        <ele>125.732</ele>
        <time>2018-12-29T13:53:13Z</time>
      </trkpt>
      <trkpt lat="34.055770" lon="-118.184640">
        <ele>124.830</ele>
        <time>2018-12-29T13:53:33Z</time>
      </trkpt>
      <trkpt lat="34.055680" lon="-118.184990">
        <ele>124.655</ele>
        <time>2018-12-29T13:53:53Z</time>
      </trkpt>
      <trkpt lat="34.055590" lon="-118.185410">
        <ele>124.456</ele>
        <time>2018-12-29T13:54:13Z</time>
      </trkpt>
      <trkpt lat="34.055520" lon="-118.185920">
        <ele>124.071</ele>
        <time>2018-12-29T13:54:33Z</time>
      </trkpt>
      <trkpt lat="34.055490" lon="-118.186150">
        <ele>123.422</ele>
        <time>2018-12-29T13:54:53Z</time>
      </trkpt>
      <trkpt lat="34.055450" lon="-118.186470">
        <ele>122.675</ele>
        <time>2018-12-29T13:55:13Z</time>
      </trkpt>
      <trkpt lat="34.055430" lon="-118.186910">
        <ele>121.475</ele>
        <time>2018-12-29T13:55:33Z</time>
      </trkpt>
      <trkpt lat="34.055420" lon="-118.187230">
        <ele>120.981</ele>
        <time>2018-12-29T13:55:53Z</time>
      </trkpt>
      <trkpt lat="34.055440" lon="-118.187970">
        <ele>120.261</ele>
        <time>2018-12-29T13:56:13Z</time>
      </trkpt>
      <trkpt lat="34.055460" lon="-118.188630">
        <ele>120.217</ele>
        <time>2018-12-29T13:56:33Z</time>
      </trkpt>
      <trkpt lat="34.055470" lon="-118.188890">
        <ele>119.908</ele>
        <time>2018-12-29T13:56:53Z</time>
      </trkpt>
      <trkpt lat="34.055540" lon="-118.191370">
        <ele>115.461</ele>
        <time>2018-12-29T13:57:13Z</time>
      </trkpt>
      <trkpt lat="34.055550" lon="-118.191770">
        <ele>115.299</ele>
        <time>2018-12-29T13:57:33Z</time>
      </trkpt>
      <trkpt lat="34.055560" lon="-118.192000">
        <ele>114.944</ele>
        <time>2018-12-29T13:57:53Z</time>
      </trkpt>
      <trkpt lat="34.055580" lon="-118.192670">
        <ele>113.665</ele>
        <time>2018-12-29T13:58:13Z</time>
      </trkpt>
      <trkpt lat="34.055620" lon="-118.194670">
        <ele>109.660</ele>
        <time>2018-12-29T13:58:33Z</time>
      </trkpt>
      <trkpt lat="34.055630" lon="-118.194950">
        <ele>109.091</ele>
        <time>2018-12-29T13:58:53Z</time>
      </trkpt>
      <trkpt lat="34.055650" lon="-118.195460">
        <ele>108.484</ele>
        <time>2018-12-29T13:59:13Z</time>
      </trkpt>
      <trkpt lat="34.055660" lon="-118.196130">
        <ele>107.874</ele>
        <time>2018-12-29T13:59:33Z</time>
      </trkpt>
      <trkpt lat="34.055670" lon="-118.196570">
        <ele>107.597</ele>
        <time>2018-12-29T13:59:53Z</time>
      </trkpt>
      <trkpt lat="34.055660" lon="-118.197060">
        <ele>106.923</ele>
        <time>2018-12-29T14:00:13Z</time>
      </trkpt>
      <trkpt lat="34.055650" lon="-118.197350">
        <ele>106.525</ele>
        <time>2018-12-29T14:00:33Z</time>
      </trkpt>
      <trkpt lat="34.055620" lon="-118.197700">
        <ele>106.108</ele>
        <time>2018-12-29T14:00:53Z</time>
      </trkpt>
      <trkpt lat="34.055610" lon="-118.197830">
        <ele>105.932</ele>
        <time>2018-12-29T14:01:13Z</time>
      </trkpt>
      <trkpt lat="34.055600" lon="-118.197940">
        <ele>105.840</ele>
        <time>2018-12-29T14:01:33Z</time>
      </trkpt>
      <trkpt lat="34.055580" lon="-118.198080">
        <ele>105.895</ele>
        <time>2018-12-29T14:01:53Z</time>
      </trkpt>
      <trkpt lat="34.055570" lon="-118.198230">
        <ele>105.796</ele>
        <time>2018-12-29T14:02:13Z</time>
      </trkpt>
      <trkpt lat="34.055550" lon="-118.198380">
        <ele>105.771</ele>
        <time>2018-12-29T14:02:33Z</time>
      </trkpt>
      <trkpt lat="34.055530" lon="-118.198510">
        <ele>105.792</ele>
        <time>2018-12-29T14:02:53Z</time>
      </trkpt>
      <trkpt lat="34.055500" lon="-118.198700">
        <ele>105.555</ele>
        <time>2018-12-29T14:03:13Z</time>
      </trkpt>
      <trkpt lat="34.055450" lon="-118.198980">
        <ele>104.875</ele>
        <time>2018-12-29T14:03:33Z</time>
      </trkpt>
      <trkpt lat="34.055449" lon="-118.198983">
        <ele>104.869</ele>
        <time>2018-12-29T14:03:53Z</time>
      </trkpt>
      <trkpt lat="34.055370" lon="-118.199430">
        <ele>103.504</ele>
        <time>2018-12-29T14:04:13Z</time>
      </trkpt>
      <trkpt lat="34.055320" lon="-118.199750">
        <ele>102.724</ele>
        <time>2018-12-29T14:04:33Z</time>
      </trkpt>
      <trkpt lat="34.055290" lon="-118.199910">
        <ele>102.308</ele>
        <time>2018-12-29T14:04:53Z</time>
      </trkpt>
      <trkpt lat="34.055270" lon="-118.200020">
        <ele>102.149</ele>
        <time>2018-12-29T14:05:13Z</time>
      </trkpt>
      <trkpt lat="34.055080" lon="-118.201140">
        <ele>102.747</ele>
        <time>2018-12-29T14:05:33Z</time>
      </trkpt>
      <trkpt lat="34.055020" lon="-118.201370">
        <ele>103.132</ele>
        <time>2018-12-29T14:05:53Z</time>
      </trkpt>
      <trkpt lat="34.055010" lon="-118.201430">
        <ele>103.153</ele>
        <time>2018-12-29T14:06:13Z</time>
      </trkpt>
      <trkpt lat="34.054980" lon="-118.201580">
        <ele>103.298</ele>
        <time>2018-12-29T14:06:33Z</time>
      </trkpt>
      <trkpt lat="34.054910" lon="-118.201850">
        <ele>103.519</ele>
        <time>2018-12-29T14:06:53Z</time>
      </trkpt>
      <trkpt lat="34.054840" lon="-118.202100">
        <ele>103.792</ele>
        <time>2018-12-29T14:07:13Z</time>
      </trkpt>
      <trkpt lat="34.054770" lon="-118.202330">
        <ele>103.652</ele>
        <time>2018-12-29T14:07:33Z</time>
      </trkpt>
      <trkpt lat="34.054450" lon="-118.203260">
        <ele>103.875</ele>
        <time>2018-12-29T14:07:53Z</time>
      </trkpt>
      <trkpt lat="34.054320" lon="-118.203610">
        <ele>102.628</ele>
        <time>2018-12-29T14:08:13Z</time>
      </trkpt>
      <trkpt lat="34.054280" lon="-118.203750">
        <ele>101.220</ele>
        <time>2018-12-29T14:08:33Z</time>
      </trkpt>
      <trkpt lat="34.054200" lon="-118.203970">
        <ele>100.008</ele>
        <time>2018-12-29T14:08:53Z</time>
      </trkpt>
      <trkpt lat="34.054080" lon="-118.204320">
        <ele>99.540</ele>
        <time>2018-12-29T14:09:13Z</time>
      </trkpt>
      <trkpt lat="34.053970" lon="-118.204650">
        <ele>98.988</ele>
        <time>2018-12-29T14:09:33Z</time>
      </trkpt>
      <trkpt lat="34.053910" lon="-118.204890">
        <ele>98.993</ele>
        <time>2018-12-29T14:09:53Z</time>
      </trkpt>
      <trkpt lat="34.053870" lon="-118.205080">
        <ele>98.324</ele>
        <time>2018-12-29T14:10:13Z</time>
      </trkpt>
      <trkpt lat="34.053820" lon="-118.205390">
        <ele>97.959</ele>
        <time>2018-12-29T14:10:33Z</time>
      </trkpt>
      <trkpt lat="34.053770" lon="-118.205800">
        <ele>97.690</ele>
        <time>2018-12-29T14:10:53Z</time>
      </trkpt>
      <trkpt lat="34.053760" lon="-118.205940">
        <ele>97.473</ele>
        <time>2018-12-29T14:11:13Z</time>
      </trkpt>
      <trkpt lat="34.053750" lon="-118.206110">
        <ele>97.393</ele>
        <time>2018-12-29T14:11:33Z</time>
      </trkpt>
      <trkpt lat="34.053750" lon="-118.206270">
        <ele>97.316</ele>
        <time>2018-12-29T14:11:53Z</time>
      </trkpt>
      <trkpt lat="34.053740" lon="-118.206420">
        <ele>97.376</ele>
        <time>2018-12-29T14:12:13Z</time>
      </trkpt>
      <trkpt lat="34.053750" lon="-118.206590">
        <ele>97.213</ele>
        <time>2018-12-29T14:12:33Z</time>
      </trkpt>
      <trkpt lat="34.053750" lon="-118.206730">
        <ele>97.208</ele>
        <time>2018-12-29T14:12:53Z</time>
      </trkpt>
      <trkpt lat="34.053760" lon="-118.206970">
        <ele>96.884</ele>
        <time>2018-12-29T14:13:13Z</time>
      </trkpt>
      <trkpt lat="34.053780" lon="-118.207120">
        <ele>96.582</ele>
        <time>2018-12-29T14:13:33Z</time>
      </trkpt>
      <trkpt lat="34.053800" lon="-118.207300">
        <ele>96.347</ele>
        <time>2018-12-29T14:13:53Z</time>
      </trkpt>
      <trkpt lat="34.053820" lon="-118.207470">
        <ele>96.228</ele>
        <time>2018-12-29T14:14:13Z</time>
      </trkpt>
      <trkpt lat="34.053840" lon="-118.207600">
        <ele>96.233</ele>
        <time>2018-12-29T14:14:33Z</time>
      </trkpt>
      <trkpt lat="34.053860" lon="-118.207740">
        <ele>96.234</ele>
        <time>2018-12-29T14:14:53Z</time>
      </trkpt>
      <trkpt lat="34.053910" lon="-118.207940">
        <ele>96.267</ele>
        <time>2018-12-29T14:15:13Z</time>
      </trkpt>
      <trkpt lat="34.053950" lon="-118.208140">
        <ele>96.367</ele>
        <time>2018-12-29T14:15:33Z</time>
      </trkpt>
      <trkpt lat="34.054020" lon="-118.208390">
        <ele>96.119</ele>
        <time>2018-12-29T14:15:53Z</time>
      </trkpt>
      <trkpt lat="34.054100" lon="-118.208670">
        <ele>96.209</ele>
        <time>2018-12-29T14:16:13Z</time>
      </trkpt>
      <trkpt lat="34.054200" lon="-118.208990">
        <ele>96.319</ele>
        <time>2018-12-29T14:16:33Z</time>
      </trkpt>
      <trkpt lat="34.054310" lon="-118.209390">
        <ele>96.108</ele>
        <time>2018-12-29T14:16:53Z</time>
      </trkpt>
      <trkpt lat="34.054360" lon="-118.209570">
        <ele>96.144</ele>
        <time>2018-12-29T14:17:13Z</time>
      </trkpt>
      <trkpt lat="34.054480" lon="-118.210010">
        <ele>95.872</ele>
        <time>2018-12-29T14:17:33Z</time>
      </trkpt>
      <trkpt lat="34.054560" lon="-118.210250">
        <ele>95.277</ele>
        <time>2018-12-29T14:17:53Z</time>
      </trkpt>
      <trkpt lat="34.054640" lon="-118.210530">
        <ele>94.818</ele>
        <time>2018-12-29T14:18:13Z</time>
      </trkpt>
      <trkpt lat="34.054660" lon="-118.210670">
        <ele>94.793</ele>
        <time>2018-12-29T14:18:33Z</time>
      </trkpt>
      <trkpt lat="34.054690" lon="-118.210780">
        <ele>94.464</ele>
        <time>2018-12-29T14:18:53Z</time>
      </trkpt>
      <trkpt lat="34.054740" lon="-118.210940">
        <ele>94.037</ele>
        <time>2018-12-29T14:19:13Z</time>
      </trkpt>
      <trkpt lat="34.054940" lon="-118.211650">
        <ele>92.377</ele>
        <time>2018-12-29T14:19:33Z</time>
      </trkpt>
      <trkpt lat="34.055030" lon="-118.211950">
        <ele>92.179</ele>
        <time>2018-12-29T14:19:53Z</time>
      </trkpt>
      <trkpt lat="34.055100" lon="-118.212210">
        <ele>92.105</ele>
        <time>2018-12-29T14:20:13Z</time>
      </trkpt>
      <trkpt lat="34.055190" lon="-118.212610">
        <ele>91.925</ele>
        <time>2018-12-29T14:20:33Z</time>
      </trkpt>
      <trkpt lat="34.055230" lon="-118.212790">
        <ele>91.908</ele>
        <time>2018-12-29T14:20:53Z</time>
      </trkpt>
      <trkpt lat="34.055260" lon="-118.212970">
        <ele>91.880</ele>
        <time>2018-12-29T14:21:13Z</time>
      </trkpt>
      <trkpt lat="34.055310" lon="-118.213290">
        <ele>91.778</ele>
        <time>2018-12-29T14:21:33Z</time>
      </trkpt>
      <trkpt lat="34.055320" lon="-118.213390">
        <ele>91.513</ele>
        <time>2018-12-29T14:21:53Z</time>
      </trkpt>
      <trkpt lat="34.055340" lon="-118.213560">
        <ele>91.374</ele>
        <time>2018-12-29T14:22:13Z</time>
      </trkpt>
      <trkpt lat="34.055350" lon="-118.213740">
        <ele>91.239</ele>
        <time>2018-12-29T14:22:33Z</time>
      </trkpt>
      <trkpt lat="34.055370" lon="-118.214010">
        <ele>90.960</ele>
        <time>2018-12-29T14:22:53Z</time>
      </trkpt>
      <trkpt lat="34.055370" lon="-118.214290">
        <ele>90.733</ele>
        <time>2018-12-29T14:23:13Z</time>
      </trkpt>
      <trkpt lat="34.055380" lon="-118.214480">
        <ele>90.663</ele>
        <time>2018-12-29T14:23:33Z</time>
      </trkpt>
      <trkpt lat="34.055380" lon="-118.215120">
        <ele>90.555</ele>
        <time>2018-12-29T14:23:53Z</time>
      </trkpt>
      <trkpt lat="34.055380" lon="-118.215190">
        <ele>90.507</ele>
        <time>2018-12-29T14:24:13Z</time>
      </trkpt>
      <trkpt lat="34.055380" lon="-118.215270">
        <ele>90.517</ele>
        <time>2018-12-29T14:24:33Z</time>
      </trkpt>
      <trkpt lat="34.055380" lon="-118.215420">
        <ele>90.408</ele>
        <time>2018-12-29T14:24:53Z</time>
      </trkpt>
      <trkpt lat="34.055380" lon="-118.215440">
        <ele>90.448</ele>
        <time>2018-12-29T14:25:13Z</time>
      </trkpt>
      <trkpt lat="34.055380" lon="-118.215470">
        <ele>90.446</ele>
        <time>2018-12-29T14:25:33Z</time>
      </trkpt>
      <trkpt lat="34.055380" lon="-118.215510">
        <ele>90.491</ele>
        <time>2018-12-29T14:25:53Z</time>
      </trkpt>
      <trkpt lat="34.055380" lon="-118.215900">
        <ele>90.432</ele>
        <time>2018-12-29T14:26:13Z</time>
      </trkpt>
      <trkpt lat="34.055380" lon="-118.215910">
        <ele>90.437</ele>
        <time>2018-12-29T14:26:33Z</time>
      </trkpt>
      <trkpt lat="34.055380" lon="-118.215920">
        <ele>90.418</ele>
        <time>2018-12-29T14:26:53Z</time>
      </trkpt>
      <trkpt lat="34.055380" lon="-118.216330">
        <ele>90.741</ele>
        <time>2018-12-29T14:27:13Z</time>
      </trkpt>
      <trkpt lat="34.055380" lon="-118.217060">
        <ele>91.151</ele>
        <time>2018-12-29T14:27:33Z</time>
      </trkpt>
      <trkpt lat="34.055390" lon="-118.218170">
        <ele>89.039</ele>
        <time>2018-12-29T14:27:53Z</time>
      </trkpt>
      <trkpt lat="34.055390" lon="-118.218330">
        <ele>88.901</ele>
        <time>2018-12-29T14:28:13Z</time>
      </trkpt>
      <trkpt lat="34.055380" lon="-118.218690">
        <ele>88.821</ele>
        <time>2018-12-29T14:28:33Z</time>
      </trkpt>
      <trkpt lat="34.055370" lon="-118.218920">
        <ele>88.608</ele>
        <time>2018-12-29T14:28:53Z</time>
      </trkpt>
      <trkpt lat="34.055280" lon="-118.219460">
        <ele>88.376</ele>
        <time>2018-12-29T14:29:13Z</time>
      </trkpt>
      <trkpt lat="34.055230" lon="-118.219700">
        <ele>88.264</ele>
        <time>2018-12-29T14:29:33Z</time>
      </trkpt>
      <trkpt lat="34.055200" lon="-118.219810">
        <ele>88.279</ele>
        <time>2018-12-29T14:29:53Z</time>
      </trkpt>
      <trkpt lat="34.055110" lon="-118.220170">
        <ele>88.230</ele>
        <time>2018-12-29T14:30:13Z</time>
      </trkpt>
      <trkpt lat="34.054980" lon="-118.220540">
        <ele>88.015</ele>
        <time>2018-12-29T14:30:33Z</time>
      </trkpt>
      <trkpt lat="34.054860" lon="-118.220820">
        <ele>87.996</ele>
        <time>2018-12-29T14:30:53Z</time>
      </trkpt>
      <trkpt lat="34.054710" lon="-118.221140">
        <ele>88.299</ele>
        <time>2018-12-29T14:31:13Z</time>
      </trkpt>
      <trkpt lat="34.054520" lon="-118.221460">
        <ele>88.249</ele>
        <time>2018-12-29T14:31:33Z</time>
      </trkpt>
      <trkpt lat="34.054250" lon="-118.221840">
        <ele>88.198</ele>
        <time>2018-12-29T14:31:53Z</time>
      </trkpt>
      <trkpt lat="34.053810" lon="-118.222370">
        <ele>85.815</ele>
        <time>2018-12-29T14:32:13Z</time>
      </trkpt>
      <trkpt lat="34.053530" lon="-118.222660">
        <ele>85.826</ele>
        <time>2018-12-29T14:32:33Z</time>
      </trkpt>
      <trkpt lat="34.053430" lon="-118.222760">
        <ele>86.708</ele>
        <time>2018-12-29T14:32:53Z</time>
      </trkpt>
      <trkpt lat="34.053330" lon="-118.222880">
        <ele>86.532</ele>
        <time>2018-12-29T14:33:13Z</time>
      </trkpt>
      <trkpt lat="34.053280" lon="-118.222950">
        <ele>85.830</ele>
        <time>2018-12-29T14:33:33Z</time>
      </trkpt>
      <trkpt lat="34.053180" lon="-118.223090">
        <ele>85.925</ele>
        <time>2018-12-29T14:33:53Z</time>
      </trkpt>
      <trkpt lat="34.053050" lon="-118.223280">
        <ele>85.816</ele>
        <time>2018-12-29T14:34:13Z</time>
      </trkpt>
      <trkpt lat="34.052970" lon="-118.223390">
        <ele>85.881</ele>
        <time>2018-12-29T14:34:33Z</time>
      </trkpt>
      <trkpt lat="34.052940" lon="-118.223450">
        <ele>85.882</ele>
        <time>2018-12-29T14:34:53Z</time>
      </trkpt>
      <trkpt lat="34.052910" lon="-118.223520">
        <ele>85.825</ele>
        <time>2018-12-29T14:35:13Z</time>
      </trkpt>
      <trkpt lat="34.052890" lon="-118.223550">
        <ele>85.815</ele>
        <time>2018-12-29T14:35:33Z</time>
      </trkpt>
      <trkpt lat="34.052870" lon="-118.223590">
        <ele>85.844</ele>
        <time>2018-12-29T14:35:53Z</time>
      </trkpt>
      <trkpt lat="34.052840" lon="-118.223670">
        <ele>85.905</ele>
        <time>2018-12-29T14:36:13Z</time>
      </trkpt>
      <trkpt lat="34.052770" lon="-118.223850">
        <ele>85.915</ele>
        <time>2018-12-29T14:36:33Z</time>
      </trkpt>
      <trkpt lat="34.052740" lon="-118.223990">
        <ele>86.008</ele>
        <time>2018-12-29T14:36:53Z</time>
      </trkpt>
      <trkpt lat="34.052710" lon="-118.224110">
        <ele>86.097</ele>
        <time>2018-12-29T14:37:13Z</time>
      </trkpt>
      <trkpt lat="34.052680" lon="-118.224230">
        <ele>86.035</ele>
        <time>2018-12-29T14:37:33Z</time>
      </trkpt>
      <trkpt lat="34.052670" lon="-118.224290">
        <ele>86.030</ele>
        <time>2018-12-29T14:37:53Z</time>
      </trkpt>
      <trkpt lat="34.052650" lon="-118.224390">
        <ele>86.091</ele>
        <time>2018-12-29T14:38:13Z</time>
      </trkpt>
      <trkpt lat="34.052640" lon="-118.224500">
        <ele>86.046</ele>
        <time>2018-12-29T14:38:33Z</time>
      </trkpt>
      <trkpt lat="34.052640" lon="-118.224630">
        <ele>85.947</ele>
        <time>2018-12-29T14:38:53Z</time>
      </trkpt>
      <trkpt lat="34.052640" lon="-118.224770">
        <ele>85.990</ele>
        <time>2018-12-29T14:39:13Z</time>
      </trkpt>
      <trkpt lat="34.052640" lon="-118.224870">
        <ele>85.990</ele>
        <time>2018-12-29T14:39:33Z</time>
      </trkpt>
      <trkpt lat="34.052650" lon="-118.225000">
        <ele>85.914</ele>
        <time>2018-12-29T14:39:53Z</time>
      </trkpt>
      <trkpt lat="34.052660" lon="-118.225150">
        <ele>85.954</ele>
        <time>2018-12-29T14:40:13Z</time>
      </trkpt>
      <trkpt lat="34.052670" lon="-118.225250">
        <ele>86.009</ele>
        <time>2018-12-29T14:40:33Z</time>
      </trkpt>
      <trkpt lat="34.052690" lon="-118.225450">
        <ele>86.008</ele>
        <time>2018-12-29T14:40:53Z</time>
      </trkpt>
      <trkpt lat="34.052710" lon="-118.225600">
        <ele>86.014</ele>
        <time>2018-12-29T14:41:13Z</time>
      </trkpt>
      <trkpt lat="34.052730" lon="-118.225920">
        <ele>86.062</ele>
        <time>2018-12-29T14:41:33Z</time>
      </trkpt>
      <trkpt lat="34.052750" lon="-118.226090">
        <ele>86.027</ele>
        <time>2018-12-29T14:41:53Z</time>
      </trkpt>
      <trkpt lat="34.052750" lon="-118.226120">
        <ele>86.028</ele>
        <time>2018-12-29T14:42:13Z</time>
      </trkpt>
      <trkpt lat="34.052750" lon="-118.226190">
        <ele>86.033</ele>
        <time>2018-12-29T14:42:33Z</time>
      </trkpt>
      <trkpt lat="34.052740" lon="-118.226310">
        <ele>86.054</ele>
        <time>2018-12-29T14:42:53Z</time>
      </trkpt>
      <trkpt lat="34.052743" lon="-118.226310">
        <ele>86.077</ele>
        <time>2018-12-29T14:43:13Z</time>
      </trkpt>
      <trkpt lat="34.052750" lon="-118.226370">
        <ele>85.987</ele>
        <time>2018-12-29T14:43:33Z</time>
      </trkpt>
      <trkpt lat="34.052770" lon="-118.226530">
        <ele>85.629</ele>
        <time>2018-12-29T14:43:53Z</time>
      </trkpt>
      <trkpt lat="34.052780" lon="-118.226570">
        <ele>85.500</ele>
        <time>2018-12-29T14:44:13Z</time>
      </trkpt>
      <trkpt lat="34.052790" lon="-118.226680">
        <ele>85.220</ele>
        <time>2018-12-29T14:44:33Z</time>
      </trkpt>
      <trkpt lat="34.052820" lon="-118.226830">
        <ele>84.808</ele>
        <time>2018-12-29T14:44:53Z</time>
      </trkpt>
      <trkpt lat="34.052900" lon="-118.227230">
        <ele>83.995</ele>
        <time>2018-12-29T14:45:13Z</time>
      </trkpt>
      <trkpt lat="34.053010" lon="-118.227870">
        <ele>81.333</ele>
        <time>2018-12-29T14:45:33Z</time>
      </trkpt>
      <trkpt lat="34.053070" lon="-118.228240">
        <ele>79.118</ele>
        <time>2018-12-29T14:45:53Z</time>
      </trkpt>
      <trkpt lat="34.053100" lon="-118.228380">
        <ele>76.329</ele>
        <time>2018-12-29T14:46:13Z</time>
      </trkpt>
      <trkpt lat="34.053120" lon="-118.228550">
        <ele>74.554</ele>
        <time>2018-12-29T14:46:33Z</time>
      </trkpt>
      <trkpt lat="34.053140" lon="-118.228630">
        <ele>74.585</ele>
        <time>2018-12-29T14:46:53Z</time>
      </trkpt>
      <trkpt lat="34.053210" lon="-118.229050">
        <ele>80.488</ele>
        <time>2018-12-29T14:47:13Z</time>
      </trkpt>
      <trkpt lat="34.053270" lon="-118.229460">
        <ele>82.498</ele>
        <time>2018-12-29T14:47:33Z</time>
      </trkpt>
      <trkpt lat="34.053430" lon="-118.230510">
        <ele>85.585</ele>
        <time>2018-12-29T14:47:53Z</time>
      </trkpt>
      <trkpt lat="34.053530" lon="-118.231230">
        <ele>83.389</ele>
        <time>2018-12-29T14:48:13Z</time>
      </trkpt>
      <trkpt lat="34.053580" lon="-118.231630">
        <ele>83.217</ele>
        <time>2018-12-29T14:48:33Z</time>
      </trkpt>
      <trkpt lat="34.053640" lon="-118.232100">
        <ele>84.008</ele>
        <time>2018-12-29T14:48:53Z</time>
      </trkpt>
      <trkpt lat="34.053660" lon="-118.232200">
        <ele>84.181</ele>
        <time>2018-12-29T14:49:13Z</time>
      </trkpt>
      <trkpt lat="34.053670" lon="-118.232310">
        <ele>84.369</ele>
        <time>2018-12-29T14:49:33Z</time>
      </trkpt>
      <trkpt lat="34.053690" lon="-118.232700">
        <ele>84.824</ele>
        <time>2018-12-29T14:49:53Z</time>
      </trkpt>
      <trkpt lat="34.053700" lon="-118.232800">
        <ele>85.055</ele>
        <time>2018-12-29T14:50:13Z</time>
      </trkpt>
      <trkpt lat="34.053720" lon="-118.232920">
        <ele>85.150</ele>
        <time>2018-12-29T14:50:33Z</time>
      </trkpt>
      <trkpt lat="34.053750" lon="-118.233060">
        <ele>85.441</ele>
        <time>2018-12-29T14:50:53Z</time>
      </trkpt>
      <trkpt lat="34.053800" lon="-118.233410">
        <ele>85.894</ele>
        <time>2018-12-29T14:51:13Z</time>
      </trkpt>
      <trkpt lat="34.053840" lon="-118.233750">
        <ele>86.064</ele>
        <time>2018-12-29T14:51:33Z</time>
      </trkpt>
      <trkpt lat="34.053840" lon="-118.233770">
        <ele>86.014</ele>
        <time>2018-12-29T14:51:53Z</time>
      </trkpt>
      <trkpt lat="34.053860" lon="-118.233910">
        <ele>86.054</ele>
        <time>2018-12-29T14:52:13Z</time>
      </trkpt>
      <trkpt lat="34.053863" lon="-118.233914">
        <ele>86.009</ele>
        <time>2018-12-29T14:52:33Z</time>
      </trkpt>
      <trkpt lat="34.053930" lon="-118.234090">
        <ele>86.008</ele>
        <time>2018-12-29T14:52:53Z</time>
      </trkpt>
      <trkpt lat="34.053950" lon="-118.234150">
        <ele>86.044</ele>
        <time>2018-12-29T14:53:13Z</time>
      </trkpt>
      <trkpt lat="34.053960" lon="-118.234210">
        <ele>86.012</ele>
        <time>2018-12-29T14:53:33Z</time>
      </trkpt>
      <trkpt lat="34.053980" lon="-118.234360">
        <ele>86.077</ele>
        <time>2018-12-29T14:53:53Z</time>
      </trkpt>
      <trkpt lat="34.053990" lon="-118.234560">
        <ele>86.088</ele>
        <time>2018-12-29T14:54:13Z</time>
      </trkpt>
      <trkpt lat="34.054010" lon="-118.234790">
        <ele>86.123</ele>
        <time>2018-12-29T14:54:33Z</time>
      </trkpt>
      <trkpt lat="34.054010" lon="-118.234830">
        <ele>86.154</ele>
        <time>2018-12-29T14:54:53Z</time>
      </trkpt>
      <trkpt lat="34.054010" lon="-118.235040">
        <ele>86.037</ele>
        <time>2018-12-29T14:55:13Z</time>
      </trkpt>
      <trkpt lat="34.054020" lon="-118.235360">
        <ele>86.147</ele>
        <time>2018-12-29T14:55:33Z</time>
      </trkpt>
      <trkpt lat="34.054020" lon="-118.235410">
        <ele>86.112</ele>
        <time>2018-12-29T14:55:53Z</time>
      </trkpt>
      <trkpt lat="34.054020" lon="-118.235480">
        <ele>86.132</ele>
        <time>2018-12-29T14:56:13Z</time>
      </trkpt>
      <trkpt lat="34.054030" lon="-118.235580">
        <ele>86.105</ele>
        <time>2018-12-29T14:56:33Z</time>
      </trkpt>
      <trkpt lat="34.054040" lon="-118.235840">
        <ele>86.008</ele>
        <time>2018-12-29T14:56:53Z</time>
      </trkpt>
      <trkpt lat="34.054050" lon="-118.235940">
        <ele>86.084</ele>
        <time>2018-12-29T14:57:13Z</time>
      </trkpt>
      <trkpt lat="34.054060" lon="-118.236100">
        <ele>86.052</ele>
        <time>2018-12-29T14:57:33Z</time>
      </trkpt>
      <trkpt lat="34.054110" lon="-118.236290">
        <ele>86.087</ele>
        <time>2018-12-29T14:57:53Z</time>
      </trkpt>
      <trkpt lat="34.054115" lon="-118.236289">
        <ele>86.088</ele>
        <time>2018-12-29T14:58:13Z</time>
      </trkpt>
      <trkpt lat="34.054130" lon="-118.236390">
        <ele>86.043</ele>
        <time>2018-12-29T14:58:33Z</time>
      </trkpt>
      <trkpt lat="34.054150" lon="-118.236550">
        <ele>85.924</ele>
        <time>2018-12-29T14:58:53Z</time>
      </trkpt>
      <trkpt lat="34.054210" lon="-118.236820">
        <ele>85.777</ele>
        <time>2018-12-29T14:59:13Z</time>
      </trkpt>
      <trkpt lat="34.054250" lon="-118.237010">
        <ele>85.747</ele>
        <time>2018-12-29T14:59:33Z</time>
      </trkpt>
      <trkpt lat="34.054310" lon="-118.237240">
        <ele>85.571</ele>
        <time>2018-12-29T14:59:53Z</time>
      </trkpt>
      <trkpt lat="34.054460" lon="-118.237700">
        <ele>85.441</ele>
        <time>2018-12-29T15:00:13Z</time>
      </trkpt>
      <trkpt lat="34.054510" lon="-118.237860">
        <ele>85.315</ele>
        <time>2018-12-29T15:00:33Z</time>
      </trkpt>
      <trkpt lat="34.054512" lon="-118.237860">
        <ele>85.308</ele>
        <time>2018-12-29T15:00:53Z</time>
      </trkpt>
      <trkpt lat="34.054610" lon="-118.238070">
        <ele>85.350</ele>
        <time>2018-12-29T15:01:13Z</time>
      </trkpt>
      <trkpt lat="34.054640" lon="-118.238120">
        <ele>85.428</ele>
        <time>2018-12-29T15:01:33Z</time>
      </trkpt>
      <trkpt lat="34.054720" lon="-118.238270">
        <ele>85.513</ele>
        <time>2018-12-29T15:01:53Z</time>
      </trkpt>
      <trkpt lat="34.054830" lon="-118.238460">
        <ele>85.634</ele>
        <time>2018-12-29T15:02:13Z</time>
      </trkpt>
      <trkpt lat="34.055080" lon="-118.238860">
        <ele>85.849</ele>
        <time>2018-12-29T15:02:33Z</time>
      </trkpt>
      <trkpt lat="34.055160" lon="-118.238980">
        <ele>85.960</ele>
        <time>2018-12-29T15:02:53Z</time>
      </trkpt>
      <trkpt lat="34.055250" lon="-118.239120">
        <ele>86.433</ele>
        <time>2018-12-29T15:03:13Z</time>
      </trkpt>
      <trkpt lat="34.055249" lon="-118.239116">
        <ele>86.473</ele>
        <time>2018-12-29T15:03:33Z</time>
      </trkpt>
      <trkpt lat="34.055290" lon="-118.239210">
        <ele>86.697</ele>
        <time>2018-12-29T15:03:53Z</time>
      </trkpt>
      <trkpt lat="34.055160" lon="-118.239340">
        <ele>85.523</ele>
        <time>2018-12-29T15:04:13Z</time>
      </trkpt>
      <trkpt lat="34.055150" lon="-118.239340">
        <ele>85.425</ele>
        <time>2018-12-29T15:04:33Z</time>
      </trkpt>
      <trkpt lat="34.055140" lon="-118.239350">
        <ele>85.308</ele>
        <time>2018-12-29T15:04:53Z</time>
      </trkpt>
      <trkpt lat="34.055030" lon="-118.239450">
        <ele>85.852</ele>
        <time>2018-12-29T15:05:13Z</time>
      </trkpt>
      <trkpt lat="34.055030" lon="-118.239460">
        <ele>85.860</ele>
        <time>2018-12-29T15:05:33Z</time>
      </trkpt>
      <trkpt lat="34.055010" lon="-118.239470">
        <ele>85.835</ele>
        <time>2018-12-29T15:05:53Z</time>
      </trkpt>
      <trkpt lat="34.054990" lon="-118.239480">
        <ele>85.946</ele>
        <time>2018-12-29T15:06:13Z</time>
      </trkpt>
      <trkpt lat="34.054940" lon="-118.239540">
        <ele>86.141</ele>
        <time>2018-12-29T15:06:33Z</time>
      </trkpt>
      <trkpt lat="34.054880" lon="-118.239590">
        <ele>86.392</ele>
        <time>2018-12-29T15:06:53Z</time>
      </trkpt>
      <trkpt lat="34.054820" lon="-118.239640">
        <ele>86.525</ele>
        <time>2018-12-29T15:07:13Z</time>
      </trkpt>
      <trkpt lat="34.054620" lon="-118.239820">
        <ele>87.295</ele>
        <time>2018-12-29T15:07:33Z</time>
      </trkpt>
      <trkpt lat="34.054600" lon="-118.239840">
        <ele>87.312</ele>
        <time>2018-12-29T15:07:53Z</time>
      </trkpt>
      <trkpt lat="34.054470" lon="-118.239970">
        <ele>88.032</ele>
        <time>2018-12-29T15:08:13Z</time>
      </trkpt>
      <trkpt lat="34.054320" lon="-118.240120">
        <ele>88.505</ele>
        <time>2018-12-29T15:08:33Z</time>
      </trkpt>
      <trkpt lat="34.054130" lon="-118.240310">
        <ele>88.808</ele>
        <time>2018-12-29T15:08:53Z</time>
      </trkpt>
      <trkpt lat="34.054060" lon="-118.240370">
        <ele>88.854</ele>
        <time>2018-12-29T15:09:13Z</time>
      </trkpt>
      <trkpt lat="34.053790" lon="-118.240620">
        <ele>88.542</ele>
        <time>2018-12-29T15:09:33Z</time>
      </trkpt>
      <trkpt lat="34.053450" lon="-118.240940">
        <ele>87.467</ele>
        <time>2018-12-29T15:09:53Z</time>
      </trkpt>
      <trkpt lat="34.052980" lon="-118.241320">
        <ele>87.038</ele>
        <time>2018-12-29T15:10:13Z</time>
      </trkpt>
      <trkpt lat="34.052420" lon="-118.241760">
        <ele>86.053</ele>
        <time>2018-12-29T15:10:33Z</time>
      </trkpt>
      <trkpt lat="34.052170" lon="-118.241950">
        <ele>86.134</ele>
        <time>2018-12-29T15:10:53Z</time>
      </trkpt>
      <trkpt lat="34.051880" lon="-118.242180">
        <ele>85.977</ele>
        <time>2018-12-29T15:11:13Z</time>
      </trkpt>
      <trkpt lat="34.051570" lon="-118.242460">
        <ele>85.797</ele>
        <time>2018-12-29T15:11:33Z</time>
      </trkpt>
      <trkpt lat="34.051566" lon="-118.242456">
        <ele>85.795</ele>
        <time>2018-12-29T15:11:53Z</time>
      </trkpt>
      <trkpt lat="34.051680" lon="-118.242620">
        <ele>85.949</ele>
        <time>2018-12-29T15:12:13Z</time>
      </trkpt>
      <trkpt lat="34.051930" lon="-118.242960">
        <ele>86.723</ele>
        <time>2018-12-29T15:12:33Z</time>
      </trkpt>
      <trkpt lat="34.052240" lon="-118.243400">
        <ele>88.108</ele>
        <time>2018-12-29T15:12:53Z</time>
      </trkpt>
      <trkpt lat="34.052239" lon="-118.243398">
        <ele>88.112</ele>
        <time>2018-12-29T15:13:13Z</time>
      </trkpt>
      <trkpt lat="34.052350" lon="-118.243570">
        <ele>88.770</ele>
        <time>2018-12-29T15:13:33Z</time>
      </trkpt>
      <trkpt lat="34.052352" lon="-118.243573">
        <ele>88.785</ele>
        <time>2018-12-29T15:13:53Z</time>
      </trkpt>
    </trkseg>
  </trk>
</gpx>
